<?xml version='1.0' encoding='UTF-8'?><gpx version="1.1" creator="JPX - https://github.com/jenetics/jpx" xmlns="http://www.topografix.com/GPX/1/1"><trk><trkseg><trkpt lat="42.05414026136038" lon="1.8714977545202975"><ele>472.0</ele><time>2026-03-30T07:40:13Z</time></trkpt><trkpt lat="42.0541989419971" lon="1.8715451767234426"><ele>472.0</ele><time>2026-03-30T07:40:16Z</time></trkpt><trkpt lat="42.05427716178413" lon="1.8715253206944102"><ele>472.0</ele><time>2026-03-30T07:40:19Z</time></trkpt><trkpt lat="42.05427621010148" lon="1.8714378085038876"><ele>472.0</ele><time>2026-03-30T07:40:22Z</time></trkpt><trkpt lat="42.05421210310839" lon="1.8714144339658543"><ele>472.0</ele><time>2026-03-30T07:41:26Z</time></trkpt><trkpt lat="42.05418407530977" lon="1.8715136334831202"><ele>472.0</ele><time>2026-03-30T07:41:29Z</time></trkpt><trkpt lat="42.05423640952834" lon="1.871567064393508"><ele>472.0</ele><time>2026-03-30T07:41:31Z</time></trkpt><trkpt lat="42.05425555539114" lon="1.871656340360876"><ele>471.50000000000006</ele><time>2026-03-30T07:41:34Z</time></trkpt><trkpt lat="42.05422946663387" lon="1.8717886972873865"><ele>471.0</ele><time>2026-03-30T07:42:22Z</time></trkpt><trkpt lat="42.05419357131344" lon="1.8718836325622132"><ele>470.5</ele><time>2026-03-30T07:42:24Z</time></trkpt><trkpt lat="42.05412909452643" lon="1.871953913525302"><ele>470.0</ele><time>2026-03-30T07:42:27Z</time></trkpt><trkpt lat="42.0540673965749" lon="1.8719785070985662"><ele>469.50000000000006</ele><time>2026-03-30T07:42:31Z</time></trkpt><trkpt lat="42.05396009256473" lon="1.8719823341992805"><ele>469.0</ele><time>2026-03-30T07:42:35Z</time></trkpt><trkpt lat="42.05386095808632" lon="1.8719694986000455"><ele>469.0</ele><time>2026-03-30T07:42:38Z</time></trkpt><trkpt lat="42.05377742588987" lon="1.8719630137971266"><ele>469.0</ele><time>2026-03-30T07:42:39Z</time></trkpt><trkpt lat="42.05368914879685" lon="1.8719531046947542"><ele>469.0</ele><time>2026-03-30T07:42:40Z</time></trkpt><trkpt lat="42.05359488364391" lon="1.8719435771746864"><ele>469.0</ele><time>2026-03-30T07:42:41Z</time></trkpt><trkpt lat="42.05348770568499" lon="1.8718773480004036"><ele>469.0</ele><time>2026-03-30T07:42:42Z</time></trkpt><trkpt lat="42.05340365272046" lon="1.871872200414002"><ele>469.00000000000006</ele><time>2026-03-30T07:42:43Z</time></trkpt><trkpt lat="42.05332296692135" lon="1.871867259034086"><ele>469.0</ele><time>2026-03-30T07:42:44Z</time></trkpt><trkpt lat="42.05324509571215" lon="1.8718624900249592"><ele>469.0</ele><time>2026-03-30T07:42:45Z</time></trkpt><trkpt lat="42.05317755999062" lon="1.8718583539827032"><ele>469.0</ele><time>2026-03-30T07:42:46Z</time></trkpt><trkpt lat="42.053113920232484" lon="1.871854456537578"><ele>469.00000000000006</ele><time>2026-03-30T07:42:47Z</time></trkpt><trkpt lat="42.053002883342515" lon="1.8718476563920805"><ele>469.0</ele><time>2026-03-30T07:42:49Z</time></trkpt><trkpt lat="42.05291135348707" lon="1.8718420508985207"><ele>468.79999999999995</ele><time>2026-03-30T07:42:51Z</time></trkpt><trkpt lat="42.05284605983117" lon="1.8718380521677864"><ele>468.59999999999997</ele><time>2026-03-30T07:42:52Z</time></trkpt><trkpt lat="42.05277758956946" lon="1.871833858893692"><ele>468.4</ele><time>2026-03-30T07:42:53Z</time></trkpt><trkpt lat="42.052672244595804" lon="1.871827228889109"><ele>468.2</ele><time>2026-03-30T07:42:55Z</time></trkpt><trkpt lat="42.0525526647882" lon="1.8718123369177546"><ele>468.0</ele><time>2026-03-30T07:42:57Z</time></trkpt><trkpt lat="42.0524353114076" lon="1.8718271376949533"><ele>467.8333333333333</ele><time>2026-03-30T07:42:59Z</time></trkpt><trkpt lat="42.05238368065081" lon="1.8718869868874575"><ele>467.66666666666663</ele><time>2026-03-30T07:43:00Z</time></trkpt><trkpt lat="42.052347035927674" lon="1.871977634505266"><ele>467.5</ele><time>2026-03-30T07:43:01Z</time></trkpt><trkpt lat="42.052327931662255" lon="1.8720759692515512"><ele>467.3333333333333</ele><time>2026-03-30T07:43:02Z</time></trkpt><trkpt lat="42.052311241975666" lon="1.8721747573064196"><ele>467.16666666666663</ele><time>2026-03-30T07:43:03Z</time></trkpt><trkpt lat="42.05229564001524" lon="1.872292578461907"><ele>467.0</ele><time>2026-03-30T07:43:04Z</time></trkpt><trkpt lat="42.052275552532336" lon="1.872402511577263"><ele>467.0</ele><time>2026-03-30T07:43:05Z</time></trkpt><trkpt lat="42.05225923420202" lon="1.8724963159572234"><ele>467.00000000000006</ele><time>2026-03-30T07:43:06Z</time></trkpt><trkpt lat="42.05224647313723" lon="1.8725796801433272"><ele>467.00000000000006</ele><time>2026-03-30T07:43:07Z</time></trkpt><trkpt lat="42.05222438854026" lon="1.8727255360759205"><ele>467.0</ele><time>2026-03-30T07:43:09Z</time></trkpt><trkpt lat="42.052197679394595" lon="1.8728912925171346"><ele>467.0</ele><time>2026-03-30T07:43:11Z</time></trkpt><trkpt lat="42.05218423599174" lon="1.8730007054759172"><ele>467.99999999999994</ele><time>2026-03-30T07:43:13Z</time></trkpt><trkpt lat="42.05215887457574" lon="1.8730797042831615"><ele>469.0</ele><time>2026-03-30T07:43:16Z</time></trkpt><trkpt lat="42.05226156455204" lon="1.873144842079324"><ele>470.0</ele><time>2026-03-30T07:43:17Z</time></trkpt><trkpt lat="42.0523472197169" lon="1.873164855166483"><ele>471.0</ele><time>2026-03-30T07:43:18Z</time></trkpt><trkpt lat="42.052423177102845" lon="1.8731837865785839"><ele>471.99999999999994</ele><time>2026-03-30T07:43:19Z</time></trkpt><trkpt lat="42.052508527366655" lon="1.873206554000508"><ele>473.0</ele><time>2026-03-30T07:43:20Z</time></trkpt><trkpt lat="42.05260697002893" lon="1.8732333517846553"><ele>473.0</ele><time>2026-03-30T07:43:21Z</time></trkpt><trkpt lat="42.05270863331901" lon="1.873261658818566"><ele>472.99999999999994</ele><time>2026-03-30T07:43:22Z</time></trkpt><trkpt lat="42.05281455719617" lon="1.873292479398248"><ele>472.99999999999994</ele><time>2026-03-30T07:43:23Z</time></trkpt><trkpt lat="42.05292476223827" lon="1.8733271967981706"><ele>473.0</ele><time>2026-03-30T07:43:24Z</time></trkpt><trkpt lat="42.0530393298785" lon="1.873362004269707"><ele>473.0</ele><time>2026-03-30T07:43:25Z</time></trkpt><trkpt lat="42.05315448742866" lon="1.8733964585805682"><ele>473.0</ele><time>2026-03-30T07:43:26Z</time></trkpt><trkpt lat="42.053269249107856" lon="1.8734279250036634"><ele>473.0</ele><time>2026-03-30T07:43:27Z</time></trkpt><trkpt lat="42.0533837666296" lon="1.873458493008604"><ele>473.0</ele><time>2026-03-30T07:43:28Z</time></trkpt><trkpt lat="42.05349951363391" lon="1.8734885437198399"><ele>473.0</ele><time>2026-03-30T07:43:29Z</time></trkpt><trkpt lat="42.05361529005457" lon="1.8735206046266586"><ele>475.5</ele><time>2026-03-30T07:43:30Z</time></trkpt><trkpt lat="42.05373212709587" lon="1.8735503248856766"><ele>478.0</ele><time>2026-03-30T07:43:31Z</time></trkpt><trkpt lat="42.053849576914324" lon="1.8735785536428653"><ele>480.5</ele><time>2026-03-30T07:43:32Z</time></trkpt><trkpt lat="42.05397038336955" lon="1.873604466402077"><ele>483.0</ele><time>2026-03-30T07:43:33Z</time></trkpt><trkpt lat="42.054095302122356" lon="1.873630562487273"><ele>482.5</ele><time>2026-03-30T07:43:34Z</time></trkpt><trkpt lat="42.0542160215773" lon="1.8736592072311564"><ele>482.0</ele><time>2026-03-30T07:43:35Z</time></trkpt><trkpt lat="42.05434219654972" lon="1.8736849206058241"><ele>481.5</ele><time>2026-03-30T07:43:36Z</time></trkpt><trkpt lat="42.054475693287834" lon="1.873708578889042"><ele>481.0</ele><time>2026-03-30T07:43:37Z</time></trkpt><trkpt lat="42.0546134486851" lon="1.8737353556683392"><ele>481.0</ele><time>2026-03-30T07:43:38Z</time></trkpt><trkpt lat="42.054756339863836" lon="1.8737658372059067"><ele>481.0</ele><time>2026-03-30T07:43:39Z</time></trkpt><trkpt lat="42.05490091586375" lon="1.8737959585359878"><ele>481.0</ele><time>2026-03-30T07:43:40Z</time></trkpt><trkpt lat="42.05504734637845" lon="1.8738235988135257"><ele>481.0</ele><time>2026-03-30T07:43:41Z</time></trkpt><trkpt lat="42.05519309434019" lon="1.8738500205856934"><ele>480.0</ele><time>2026-03-30T07:43:42Z</time></trkpt><trkpt lat="42.05533167672731" lon="1.8738709885751927"><ele>479.0</ele><time>2026-03-30T07:43:43Z</time></trkpt><trkpt lat="42.05546473567013" lon="1.8738821628189035"><ele>478.0</ele><time>2026-03-30T07:43:44Z</time></trkpt><trkpt lat="42.05559676298293" lon="1.8738739986147825"><ele>477.0</ele><time>2026-03-30T07:43:45Z</time></trkpt><trkpt lat="42.055727574438684" lon="1.8738362074236632"><ele>475.75</ele><time>2026-03-30T07:43:46Z</time></trkpt><trkpt lat="42.05585725798071" lon="1.8737789771626419"><ele>474.5</ele><time>2026-03-30T07:43:47Z</time></trkpt><trkpt lat="42.05598709212311" lon="1.8737183710645373"><ele>473.25</ele><time>2026-03-30T07:43:48Z</time></trkpt><trkpt lat="42.05612155751037" lon="1.8736578225209446"><ele>472.0</ele><time>2026-03-30T07:43:49Z</time></trkpt><trkpt lat="42.056256979047575" lon="1.8735955104209738"><ele>472.0</ele><time>2026-03-30T07:43:50Z</time></trkpt><trkpt lat="42.05639428621236" lon="1.8735315713670972"><ele>472.0</ele><time>2026-03-30T07:43:51Z</time></trkpt><trkpt lat="42.05653218024442" lon="1.8734738654664433"><ele>472.0</ele><time>2026-03-30T07:43:52Z</time></trkpt><trkpt lat="42.056673880312005" lon="1.873421580668437"><ele>472.0</ele><time>2026-03-30T07:43:53Z</time></trkpt><trkpt lat="42.05681681226547" lon="1.873373243905196"><ele>471.75</ele><time>2026-03-30T07:43:54Z</time></trkpt><trkpt lat="42.05696147748002" lon="1.8733301586512028"><ele>471.5</ele><time>2026-03-30T07:43:55Z</time></trkpt><trkpt lat="42.05710826951828" lon="1.8732896582054164"><ele>471.25</ele><time>2026-03-30T07:43:56Z</time></trkpt><trkpt lat="42.05725584300043" lon="1.8732486219050029"><ele>471.0</ele><time>2026-03-30T07:43:57Z</time></trkpt><trkpt lat="42.05740287890103" lon="1.873204304746562"><ele>472.66666666666663</ele><time>2026-03-30T07:43:58Z</time></trkpt><trkpt lat="42.057551345432735" lon="1.873159824981"><ele>474.3333333333333</ele><time>2026-03-30T07:43:59Z</time></trkpt><trkpt lat="42.05769987219643" lon="1.8731160830201334"><ele>476.0</ele><time>2026-03-30T07:44:00Z</time></trkpt><trkpt lat="42.05785031823335" lon="1.8730736197840727"><ele>476.0</ele><time>2026-03-30T07:44:01Z</time></trkpt><trkpt lat="42.05800029457015" lon="1.8730328307003783"><ele>476.0</ele><time>2026-03-30T07:44:02Z</time></trkpt><trkpt lat="42.05814993181389" lon="1.8729885233210126"><ele>476.0</ele><time>2026-03-30T07:44:03Z</time></trkpt><trkpt lat="42.05830226025373" lon="1.8729452049424007"><ele>477.0</ele><time>2026-03-30T07:44:04Z</time></trkpt><trkpt lat="42.058455701358525" lon="1.8728997021151343"><ele>478.0</ele><time>2026-03-30T07:44:05Z</time></trkpt><trkpt lat="42.05861338596244" lon="1.8728558454963464"><ele>479.0</ele><time>2026-03-30T07:44:06Z</time></trkpt><trkpt lat="42.05877555946535" lon="1.8728156199848147"><ele>479.0</ele><time>2026-03-30T07:44:07Z</time></trkpt><trkpt lat="42.05894260184772" lon="1.8727787612119031"><ele>479.0</ele><time>2026-03-30T07:44:08Z</time></trkpt><trkpt lat="42.05911731512908" lon="1.8727160874541258"><ele>479.0</ele><time>2026-03-30T07:44:09Z</time></trkpt><trkpt lat="42.05929703090508" lon="1.8726641045734782"><ele>479.66666666666663</ele><time>2026-03-30T07:44:10Z</time></trkpt><trkpt lat="42.05947732912668" lon="1.8726119543976303"><ele>480.33333333333337</ele><time>2026-03-30T07:44:11Z</time></trkpt><trkpt lat="42.059629846688466" lon="1.8725775700021439"><ele>481.0</ele><time>2026-03-30T07:44:12Z</time></trkpt><trkpt lat="42.059800488707346" lon="1.8725199871760356"><ele>479.0</ele><time>2026-03-30T07:44:13Z</time></trkpt><trkpt lat="42.05996708653149" lon="1.8724618709785572"><ele>477.0</ele><time>2026-03-30T07:44:14Z</time></trkpt><trkpt lat="42.060131784581124" lon="1.8723998352131097"><ele>475.0</ele><time>2026-03-30T07:44:15Z</time></trkpt><trkpt lat="42.060296533141795" lon="1.8723289814289104"><ele>475.0</ele><time>2026-03-30T07:44:16Z</time></trkpt><trkpt lat="42.060462093050965" lon="1.8722549640615964"><ele>475.0</ele><time>2026-03-30T07:44:17Z</time></trkpt><trkpt lat="42.06061969453876" lon="1.8721879949281015"><ele>475.0</ele><time>2026-03-30T07:44:18Z</time></trkpt><trkpt lat="42.060772654618596" lon="1.8721205245396133"><ele>476.6666666666667</ele><time>2026-03-30T07:44:19Z</time></trkpt><trkpt lat="42.06092496207725" lon="1.8720533957188457"><ele>478.33333333333337</ele><time>2026-03-30T07:44:20Z</time></trkpt><trkpt lat="42.06107538051585" lon="1.8719854615745541"><ele>480.0</ele><time>2026-03-30T07:44:21Z</time></trkpt><trkpt lat="42.06122681988055" lon="1.871917383716746"><ele>480.0</ele><time>2026-03-30T07:44:22Z</time></trkpt><trkpt lat="42.06138497926906" lon="1.8718506422943844"><ele>480.0</ele><time>2026-03-30T07:44:23Z</time></trkpt><trkpt lat="42.06154304735839" lon="1.8717836063215094"><ele>480.0</ele><time>2026-03-30T07:44:24Z</time></trkpt><trkpt lat="42.061703646332575" lon="1.8717157189764022"><ele>479.0</ele><time>2026-03-30T07:44:25Z</time></trkpt><trkpt lat="42.06186263525402" lon="1.871646534680675"><ele>478.0</ele><time>2026-03-30T07:44:26Z</time></trkpt><trkpt lat="42.06202365071002" lon="1.8715738823922923"><ele>477.0</ele><time>2026-03-30T07:44:27Z</time></trkpt><trkpt lat="42.06218197932544" lon="1.8715059419393767"><ele>477.0</ele><time>2026-03-30T07:44:28Z</time></trkpt><trkpt lat="42.06234058984554" lon="1.8714414988145205"><ele>477.0</ele><time>2026-03-30T07:44:29Z</time></trkpt><trkpt lat="42.06250103130307" lon="1.8713799227696464"><ele>477.0</ele><time>2026-03-30T07:44:30Z</time></trkpt><trkpt lat="42.062666336376445" lon="1.8713290698130547"><ele>479.66666666666663</ele><time>2026-03-30T07:44:31Z</time></trkpt><trkpt lat="42.06282693559294" lon="1.8712974628451187"><ele>482.3333333333333</ele><time>2026-03-30T07:44:32Z</time></trkpt><trkpt lat="42.06298469824646" lon="1.8712660105041097"><ele>485.0</ele><time>2026-03-30T07:44:33Z</time></trkpt><trkpt lat="42.06314312264588" lon="1.8712320756765306"><ele>486.0</ele><time>2026-03-30T07:44:34Z</time></trkpt><trkpt lat="42.063296167668724" lon="1.8711972178808125"><ele>487.0</ele><time>2026-03-30T07:44:35Z</time></trkpt><trkpt lat="42.06345221811599" lon="1.8711611284932332"><ele>488.0</ele><time>2026-03-30T07:44:36Z</time></trkpt><trkpt lat="42.06361217121331" lon="1.8711291666511212"><ele>488.0</ele><time>2026-03-30T07:44:37Z</time></trkpt><trkpt lat="42.063772476720715" lon="1.8710996393063373"><ele>488.0</ele><time>2026-03-30T07:44:38Z</time></trkpt><trkpt lat="42.0639401481081" lon="1.8710676622242413"><ele>488.0</ele><time>2026-03-30T07:44:39Z</time></trkpt><trkpt lat="42.06410688565849" lon="1.871034936817106"><ele>488.0</ele><time>2026-03-30T07:44:40Z</time></trkpt><trkpt lat="42.06427546987882" lon="1.8709992606151213"><ele>488.0</ele><time>2026-03-30T07:44:41Z</time></trkpt><trkpt lat="42.06444784502662" lon="1.8709631319340936"><ele>488.0</ele><time>2026-03-30T07:44:42Z</time></trkpt><trkpt lat="42.06462187574531" lon="1.8709281455608302"><ele>485.3333333333333</ele><time>2026-03-30T07:44:43Z</time></trkpt><trkpt lat="42.06479898777028" lon="1.8708922044096037"><ele>482.66666666666663</ele><time>2026-03-30T07:44:44Z</time></trkpt><trkpt lat="42.06495963694906" lon="1.8708563396858389"><ele>480.0</ele><time>2026-03-30T07:44:45Z</time></trkpt><trkpt lat="42.06512063192093" lon="1.8708217985202138"><ele>480.0</ele><time>2026-03-30T07:44:46Z</time></trkpt><trkpt lat="42.06528696772163" lon="1.870789142324585"><ele>480.0</ele><time>2026-03-30T07:44:47Z</time></trkpt><trkpt lat="42.065456254383456" lon="1.8707573005656581"><ele>480.0</ele><time>2026-03-30T07:44:48Z</time></trkpt><trkpt lat="42.06562866634864" lon="1.8707227985707393"><ele>479.33333333333337</ele><time>2026-03-30T07:44:49Z</time></trkpt><trkpt lat="42.065802665292885" lon="1.870685607593798"><ele>478.6666666666667</ele><time>2026-03-30T07:44:50Z</time></trkpt><trkpt lat="42.06597890245917" lon="1.87064786012065"><ele>478.0</ele><time>2026-03-30T07:44:51Z</time></trkpt><trkpt lat="42.066153874603025" lon="1.8706107854893426"><ele>478.0</ele><time>2026-03-30T07:44:52Z</time></trkpt><trkpt lat="42.06632519012385" lon="1.870575993339373"><ele>478.0</ele><time>2026-03-30T07:44:53Z</time></trkpt><trkpt lat="42.06648650106548" lon="1.8705419670054866"><ele>478.0</ele><time>2026-03-30T07:44:54Z</time></trkpt><trkpt lat="42.066635462257835" lon="1.870510813475492"><ele>478.5</ele><time>2026-03-30T07:44:55Z</time></trkpt><trkpt lat="42.06677819562013" lon="1.8704806129634772"><ele>479.0</ele><time>2026-03-30T07:44:56Z</time></trkpt><trkpt lat="42.066919757022106" lon="1.8704505027651817"><ele>479.5</ele><time>2026-03-30T07:44:57Z</time></trkpt><trkpt lat="42.06705960420628" lon="1.8704221030276909"><ele>480.0</ele><time>2026-03-30T07:44:58Z</time></trkpt><trkpt lat="42.067199758608254" lon="1.8703925858455377"><ele>480.0</ele><time>2026-03-30T07:44:59Z</time></trkpt><trkpt lat="42.067339474390394" lon="1.870360609431892"><ele>480.0</ele><time>2026-03-30T07:45:00Z</time></trkpt><trkpt lat="42.06747916281666" lon="1.8703265762608139"><ele>480.0</ele><time>2026-03-30T07:45:01Z</time></trkpt><trkpt lat="42.06761790366914" lon="1.8702933715526713"><ele>480.0</ele><time>2026-03-30T07:45:02Z</time></trkpt><trkpt lat="42.067782801685624" lon="1.8702710628173456"><ele>480.75</ele><time>2026-03-30T07:45:03Z</time></trkpt><trkpt lat="42.067928305750044" lon="1.870244551178488"><ele>481.5</ele><time>2026-03-30T07:45:04Z</time></trkpt><trkpt lat="42.068069423897526" lon="1.8702198779832897"><ele>482.25</ele><time>2026-03-30T07:45:05Z</time></trkpt><trkpt lat="42.06819002270963" lon="1.870193642100861"><ele>483.0</ele><time>2026-03-30T07:45:06Z</time></trkpt><trkpt lat="42.06827746745262" lon="1.870161526430893"><ele>483.3333333333333</ele><time>2026-03-30T07:45:07Z</time></trkpt><trkpt lat="42.06835319047902" lon="1.8701589475884581"><ele>483.66666666666663</ele><time>2026-03-30T07:45:08Z</time></trkpt><trkpt lat="42.06842631484932" lon="1.8701495593945217"><ele>484.0</ele><time>2026-03-30T07:45:09Z</time></trkpt><trkpt lat="42.06850025246629" lon="1.8701536639831735"><ele>484.3333333333333</ele><time>2026-03-30T07:45:10Z</time></trkpt><trkpt lat="42.068563717950255" lon="1.870145692656952"><ele>484.66666666666663</ele><time>2026-03-30T07:45:11Z</time></trkpt><trkpt lat="42.06864677107924" lon="1.8701365159476049"><ele>485.0</ele><time>2026-03-30T07:45:12Z</time></trkpt><trkpt lat="42.06873583183847" lon="1.8701249842042096"><ele>484.6</ele><time>2026-03-30T07:45:13Z</time></trkpt><trkpt lat="42.06883281238812" lon="1.8701065806399872"><ele>484.2</ele><time>2026-03-30T07:45:14Z</time></trkpt><trkpt lat="42.06893593097324" lon="1.8700904788741657"><ele>483.79999999999995</ele><time>2026-03-30T07:45:15Z</time></trkpt><trkpt lat="42.06904259559545" lon="1.870073631704633"><ele>483.4</ele><time>2026-03-30T07:45:16Z</time></trkpt><trkpt lat="42.06915377503998" lon="1.870049676130861"><ele>483.0</ele><time>2026-03-30T07:45:17Z</time></trkpt><trkpt lat="42.06926872741311" lon="1.8700269036215518"><ele>484.0</ele><time>2026-03-30T07:45:18Z</time></trkpt><trkpt lat="42.06938028683978" lon="1.8700017518930263"><ele>485.0</ele><time>2026-03-30T07:45:19Z</time></trkpt><trkpt lat="42.06949589682766" lon="1.8699718461372001"><ele>486.0</ele><time>2026-03-30T07:45:20Z</time></trkpt><trkpt lat="42.06961048277593" lon="1.8699457773368158"><ele>487.0</ele><time>2026-03-30T07:45:21Z</time></trkpt><trkpt lat="42.06971670011361" lon="1.869922604067477"><ele>487.0</ele><time>2026-03-30T07:45:22Z</time></trkpt><trkpt lat="42.06982119206603" lon="1.8699054851174037"><ele>487.00000000000006</ele><time>2026-03-30T07:45:23Z</time></trkpt><trkpt lat="42.06992291739022" lon="1.8698962757546034"><ele>487.00000000000006</ele><time>2026-03-30T07:45:24Z</time></trkpt><trkpt lat="42.070019250630295" lon="1.8698931277589586"><ele>487.0</ele><time>2026-03-30T07:45:25Z</time></trkpt><trkpt lat="42.07011837658074" lon="1.8699126674757072"><ele>487.0</ele><time>2026-03-30T07:45:26Z</time></trkpt><trkpt lat="42.07022229868429" lon="1.869941294885235"><ele>487.20000000000005</ele><time>2026-03-30T07:45:27Z</time></trkpt><trkpt lat="42.07032305587387" lon="1.869968386168655"><ele>487.40000000000003</ele><time>2026-03-30T07:45:28Z</time></trkpt><trkpt lat="42.070412016745195" lon="1.8699917458802333"><ele>487.59999999999997</ele><time>2026-03-30T07:45:29Z</time></trkpt><trkpt lat="42.07049012798946" lon="1.8700155043866256"><ele>487.79999999999995</ele><time>2026-03-30T07:45:30Z</time></trkpt><trkpt lat="42.07055890572411" lon="1.870034707775476"><ele>488.0</ele><time>2026-03-30T07:45:31Z</time></trkpt><trkpt lat="42.07067681817106" lon="1.8700747332404153"><ele>487.99999999999994</ele><time>2026-03-30T07:45:33Z</time></trkpt><trkpt lat="42.07075142671938" lon="1.8700973597004815"><ele>488.0</ele><time>2026-03-30T07:45:34Z</time></trkpt><trkpt lat="42.07082589677657" lon="1.8701223256207422"><ele>488.0</ele><time>2026-03-30T07:45:35Z</time></trkpt><trkpt lat="42.070905109268196" lon="1.8701442266814967"><ele>488.0</ele><time>2026-03-30T07:45:36Z</time></trkpt><trkpt lat="42.070988987119044" lon="1.8701685779472002"><ele>487.99999999999994</ele><time>2026-03-30T07:45:37Z</time></trkpt><trkpt lat="42.07109118613983" lon="1.8701919444980863"><ele>488.0</ele><time>2026-03-30T07:45:38Z</time></trkpt><trkpt lat="42.0711895078891" lon="1.8702156540994024"><ele>488.3333333333333</ele><time>2026-03-30T07:45:39Z</time></trkpt><trkpt lat="42.07128917776172" lon="1.8702300581309375"><ele>488.66666666666663</ele><time>2026-03-30T07:45:40Z</time></trkpt><trkpt lat="42.071385135857554" lon="1.8702289511058008"><ele>489.0</ele><time>2026-03-30T07:45:41Z</time></trkpt><trkpt lat="42.07147452095673" lon="1.87021854282287"><ele>489.33333333333337</ele><time>2026-03-30T07:45:42Z</time></trkpt><trkpt lat="42.07155712316865" lon="1.8702030012608106"><ele>489.6666666666667</ele><time>2026-03-30T07:45:43Z</time></trkpt><trkpt lat="42.07163397892259" lon="1.8701947826600451"><ele>490.0</ele><time>2026-03-30T07:45:44Z</time></trkpt><trkpt lat="42.07171254497719" lon="1.8701975489774747"><ele>489.75</ele><time>2026-03-30T07:45:45Z</time></trkpt><trkpt lat="42.07179100566613" lon="1.8702256277084357"><ele>489.5</ele><time>2026-03-30T07:45:46Z</time></trkpt><trkpt lat="42.071876656253764" lon="1.8702635628060567"><ele>489.25</ele><time>2026-03-30T07:45:47Z</time></trkpt><trkpt lat="42.071967157041925" lon="1.8702830716674"><ele>489.0</ele><time>2026-03-30T07:45:48Z</time></trkpt><trkpt lat="42.0720730689491" lon="1.8700246032788403"><ele>489.0</ele><time>2026-03-30T07:45:50Z</time></trkpt><trkpt lat="42.07204420206522" lon="1.8698804126371649"><ele>489.0</ele><time>2026-03-30T07:45:51Z</time></trkpt><trkpt lat="42.071974327561364" lon="1.8697769753734634"><ele>489.0</ele><time>2026-03-30T07:45:52Z</time></trkpt><trkpt lat="42.071981497703035" lon="1.869627634688408"><ele>489.0</ele><time>2026-03-30T07:45:53Z</time></trkpt><trkpt lat="42.07195832731557" lon="1.8695055982916984"><ele>489.0</ele><time>2026-03-30T07:45:54Z</time></trkpt><trkpt lat="42.07208359198061" lon="1.8693867468829353"><ele>487.5</ele><time>2026-03-30T07:45:55Z</time></trkpt><trkpt lat="42.072142363238584" lon="1.8692638774885588"><ele>486.0</ele><time>2026-03-30T07:45:56Z</time></trkpt><trkpt lat="42.072221678446226" lon="1.869158762241181"><ele>484.5</ele><time>2026-03-30T07:45:57Z</time></trkpt><trkpt lat="42.072297540837944" lon="1.8690426536889002"><ele>483.0</ele><time>2026-03-30T07:45:58Z</time></trkpt><trkpt lat="42.07237507832362" lon="1.8689194651735737"><ele>483.25</ele><time>2026-03-30T07:45:59Z</time></trkpt><trkpt lat="42.072455634539494" lon="1.8687971439337945"><ele>483.5</ele><time>2026-03-30T07:46:00Z</time></trkpt><trkpt lat="42.07253921102847" lon="1.8686846592059867"><ele>483.75</ele><time>2026-03-30T07:46:01Z</time></trkpt><trkpt lat="42.07262969206131" lon="1.8685860577067936"><ele>484.0</ele><time>2026-03-30T07:46:02Z</time></trkpt><trkpt lat="42.07272681329338" lon="1.8684886632120157"><ele>484.5</ele><time>2026-03-30T07:46:03Z</time></trkpt><trkpt lat="42.07282261769695" lon="1.8683827384100418"><ele>485.0</ele><time>2026-03-30T07:46:04Z</time></trkpt><trkpt lat="42.072920946767056" lon="1.8682706941328215"><ele>485.5</ele><time>2026-03-30T07:46:05Z</time></trkpt><trkpt lat="42.07301647984746" lon="1.8681450101916341"><ele>486.0</ele><time>2026-03-30T07:46:06Z</time></trkpt><trkpt lat="42.073131063384146" lon="1.8680481281003312"><ele>486.0</ele><time>2026-03-30T07:46:07Z</time></trkpt><trkpt lat="42.07323915260802" lon="1.8679329963232985"><ele>486.0</ele><time>2026-03-30T07:46:08Z</time></trkpt><trkpt lat="42.07336122828546" lon="1.8678008925175305"><ele>486.0</ele><time>2026-03-30T07:46:09Z</time></trkpt><trkpt lat="42.073487172366015" lon="1.8676594294220683"><ele>489.0</ele><time>2026-03-30T07:46:10Z</time></trkpt><trkpt lat="42.073618053688435" lon="1.8675111334171246"><ele>492.0</ele><time>2026-03-30T07:46:11Z</time></trkpt><trkpt lat="42.073760180201916" lon="1.8673501995857145"><ele>495.0</ele><time>2026-03-30T07:46:12Z</time></trkpt><trkpt lat="42.073906331171685" lon="1.8671851919108655"><ele>495.0</ele><time>2026-03-30T07:46:13Z</time></trkpt><trkpt lat="42.07405303653999" lon="1.8670238154237213"><ele>495.0</ele><time>2026-03-30T07:46:14Z</time></trkpt><trkpt lat="42.07419780860011" lon="1.8668713247698274"><ele>495.0</ele><time>2026-03-30T07:46:15Z</time></trkpt><trkpt lat="42.074344392414844" lon="1.8667246751292834"><ele>497.33333333333337</ele><time>2026-03-30T07:46:16Z</time></trkpt><trkpt lat="42.07449442260804" lon="1.8665844673560912"><ele>499.6666666666667</ele><time>2026-03-30T07:46:17Z</time></trkpt><trkpt lat="42.07464842187555" lon="1.8664595841946514"><ele>502.0</ele><time>2026-03-30T07:46:18Z</time></trkpt><trkpt lat="42.07481047195692" lon="1.8663461654809896"><ele>505.0</ele><time>2026-03-30T07:46:19Z</time></trkpt><trkpt lat="42.074974414424254" lon="1.8662402193260397"><ele>508.0</ele><time>2026-03-30T07:46:20Z</time></trkpt><trkpt lat="42.07513875967417" lon="1.8661373617499941"><ele>511.0</ele><time>2026-03-30T07:46:21Z</time></trkpt><trkpt lat="42.07530922761145" lon="1.866051244959648"><ele>511.0</ele><time>2026-03-30T07:46:22Z</time></trkpt><trkpt lat="42.075481378416384" lon="1.8659666401315158"><ele>511.0</ele><time>2026-03-30T07:46:23Z</time></trkpt><trkpt lat="42.075656143633175" lon="1.8658725133738614"><ele>511.0</ele><time>2026-03-30T07:46:24Z</time></trkpt><trkpt lat="42.075832052292334" lon="1.8657786049046636"><ele>513.0</ele><time>2026-03-30T07:46:25Z</time></trkpt><trkpt lat="42.07600970478526" lon="1.865687852627907"><ele>515.0</ele><time>2026-03-30T07:46:26Z</time></trkpt><trkpt lat="42.07618990091239" lon="1.8655958087165954"><ele>517.0</ele><time>2026-03-30T07:46:27Z</time></trkpt><trkpt lat="42.076369458522215" lon="1.8655033550879345"><ele>517.0</ele><time>2026-03-30T07:46:28Z</time></trkpt><trkpt lat="42.07654974464258" lon="1.86540866604999"><ele>517.0</ele><time>2026-03-30T07:46:29Z</time></trkpt><trkpt lat="42.07673047662366" lon="1.8653093920352202"><ele>517.0</ele><time>2026-03-30T07:46:30Z</time></trkpt><trkpt lat="42.076908214146336" lon="1.8651992383301537"><ele>517.6666666666667</ele><time>2026-03-30T07:46:31Z</time></trkpt><trkpt lat="42.077081189460905" lon="1.8650727170244852"><ele>518.3333333333334</ele><time>2026-03-30T07:46:32Z</time></trkpt><trkpt lat="42.0772474916868" lon="1.8649265679421414"><ele>519.0</ele><time>2026-03-30T07:46:33Z</time></trkpt><trkpt lat="42.07740304727012" lon="1.8647567763121549"><ele>521.6666666666666</ele><time>2026-03-30T07:46:34Z</time></trkpt><trkpt lat="42.07754542195275" lon="1.8645649891616516"><ele>524.3333333333333</ele><time>2026-03-30T07:46:35Z</time></trkpt><trkpt lat="42.077682823309424" lon="1.8643636738466445"><ele>527.0</ele><time>2026-03-30T07:46:36Z</time></trkpt><trkpt lat="42.07782197773056" lon="1.8641663784173417"><ele>527.0</ele><time>2026-03-30T07:46:37Z</time></trkpt><trkpt lat="42.077961972537445" lon="1.8639747799774478"><ele>527.0</ele><time>2026-03-30T07:46:38Z</time></trkpt><trkpt lat="42.078105123708" lon="1.8637897585741272"><ele>527.0</ele><time>2026-03-30T07:46:39Z</time></trkpt><trkpt lat="42.07824822935707" lon="1.8636082282039768"><ele>528.6666666666666</ele><time>2026-03-30T07:46:40Z</time></trkpt><trkpt lat="42.078392640512945" lon="1.8634323101611925"><ele>530.3333333333334</ele><time>2026-03-30T07:46:41Z</time></trkpt><trkpt lat="42.07853893411533" lon="1.863263794341054"><ele>532.0</ele><time>2026-03-30T07:46:42Z</time></trkpt><trkpt lat="42.07869206693734" lon="1.863092762958518"><ele>532.0</ele><time>2026-03-30T07:46:43Z</time></trkpt><trkpt lat="42.07885219176275" lon="1.8629104164087582"><ele>532.0</ele><time>2026-03-30T07:46:44Z</time></trkpt><trkpt lat="42.07901567316989" lon="1.8627230081872115"><ele>532.0</ele><time>2026-03-30T07:46:45Z</time></trkpt><trkpt lat="42.07917656446891" lon="1.8625506941180328"><ele>535.0</ele><time>2026-03-30T07:46:46Z</time></trkpt><trkpt lat="42.079334292978956" lon="1.8623884677941078"><ele>538.0</ele><time>2026-03-30T07:46:47Z</time></trkpt><trkpt lat="42.079487125339426" lon="1.8622263313625478"><ele>541.0</ele><time>2026-03-30T07:46:48Z</time></trkpt><trkpt lat="42.07963623637761" lon="1.862066933639133"><ele>541.0</ele><time>2026-03-30T07:46:49Z</time></trkpt><trkpt lat="42.07978249000096" lon="1.8619116840174659"><ele>541.0</ele><time>2026-03-30T07:46:50Z</time></trkpt><trkpt lat="42.07992594962863" lon="1.8617499308767176"><ele>541.0</ele><time>2026-03-30T07:46:51Z</time></trkpt><trkpt lat="42.080068123439865" lon="1.8615856142601668"><ele>543.6666666666667</ele><time>2026-03-30T07:46:52Z</time></trkpt><trkpt lat="42.080211324961105" lon="1.861420627231974"><ele>546.3333333333334</ele><time>2026-03-30T07:46:53Z</time></trkpt><trkpt lat="42.08035290932679" lon="1.8612561967046304"><ele>549.0</ele><time>2026-03-30T07:46:54Z</time></trkpt><trkpt lat="42.0804944108413" lon="1.8610915566082562"><ele>549.0</ele><time>2026-03-30T07:46:55Z</time></trkpt><trkpt lat="42.080638818449266" lon="1.860927769856158"><ele>549.0</ele><time>2026-03-30T07:46:56Z</time></trkpt><trkpt lat="42.0807848989625" lon="1.860765417616959"><ele>549.0</ele><time>2026-03-30T07:46:57Z</time></trkpt><trkpt lat="42.08093476795074" lon="1.8606066136705943"><ele>550.3333333333334</ele><time>2026-03-30T07:46:58Z</time></trkpt><trkpt lat="42.08108855221358" lon="1.8604506240988545"><ele>551.6666666666667</ele><time>2026-03-30T07:46:59Z</time></trkpt><trkpt lat="42.081245900207314" lon="1.860298186859757"><ele>553.0</ele><time>2026-03-30T07:47:00Z</time></trkpt><trkpt lat="42.081407985732284" lon="1.8601510748494703"><ele>552.3333333333334</ele><time>2026-03-30T07:47:01Z</time></trkpt><trkpt lat="42.08156994250676" lon="1.860005566440589"><ele>551.6666666666666</ele><time>2026-03-30T07:47:02Z</time></trkpt><trkpt lat="42.081732192117364" lon="1.8598579541668656"><ele>551.0</ele><time>2026-03-30T07:47:03Z</time></trkpt><trkpt lat="42.081892717291666" lon="1.8597081454185609"><ele>552.6666666666666</ele><time>2026-03-30T07:47:04Z</time></trkpt><trkpt lat="42.082054389942705" lon="1.8595578218722157"><ele>554.3333333333334</ele><time>2026-03-30T07:47:05Z</time></trkpt><trkpt lat="42.08221562577686" lon="1.8594057128718526"><ele>556.0</ele><time>2026-03-30T07:47:06Z</time></trkpt><trkpt lat="42.08237729357876" lon="1.8592589016999372"><ele>558.3333333333334</ele><time>2026-03-30T07:47:07Z</time></trkpt><trkpt lat="42.08253740507762" lon="1.8591090184509664"><ele>560.6666666666666</ele><time>2026-03-30T07:47:08Z</time></trkpt><trkpt lat="42.08269952735245" lon="1.858974047450209"><ele>563.0</ele><time>2026-03-30T07:47:09Z</time></trkpt><trkpt lat="42.08287076305362" lon="1.8588338355952487"><ele>563.0</ele><time>2026-03-30T07:47:10Z</time></trkpt><trkpt lat="42.08305254627732" lon="1.858705205591553"><ele>563.0</ele><time>2026-03-30T07:47:11Z</time></trkpt><trkpt lat="42.083239528994426" lon="1.8585956094830223"><ele>563.0</ele><time>2026-03-30T07:47:12Z</time></trkpt><trkpt lat="42.08343437890029" lon="1.8585125285250277"><ele>564.3333333333333</ele><time>2026-03-30T07:47:13Z</time></trkpt><trkpt lat="42.08363000671441" lon="1.8584435665754881"><ele>565.6666666666666</ele><time>2026-03-30T07:47:14Z</time></trkpt><trkpt lat="42.08382343310633" lon="1.8583811548646152"><ele>567.0</ele><time>2026-03-30T07:47:15Z</time></trkpt><trkpt lat="42.084014397812574" lon="1.8583172480163255"><ele>569.6666666666666</ele><time>2026-03-30T07:47:16Z</time></trkpt><trkpt lat="42.08420182700155" lon="1.8582484389516891"><ele>572.3333333333333</ele><time>2026-03-30T07:47:17Z</time></trkpt><trkpt lat="42.084388635159904" lon="1.858177675694773"><ele>575.0</ele><time>2026-03-30T07:47:18Z</time></trkpt><trkpt lat="42.08457639306616" lon="1.8581036623969687"><ele>575.0</ele><time>2026-03-30T07:47:19Z</time></trkpt><trkpt lat="42.08476316547907" lon="1.858025967537434"><ele>575.0</ele><time>2026-03-30T07:47:20Z</time></trkpt><trkpt lat="42.084947072263965" lon="1.857947075877359"><ele>575.0</ele><time>2026-03-30T07:47:21Z</time></trkpt><trkpt lat="42.0851264842844" lon="1.8578630102911067"><ele>575.0</ele><time>2026-03-30T07:47:22Z</time></trkpt><trkpt lat="42.08530156684986" lon="1.857769205774085"><ele>575.0</ele><time>2026-03-30T07:47:23Z</time></trkpt><trkpt lat="42.08546832521275" lon="1.857652878388324"><ele>575.0</ele><time>2026-03-30T07:47:24Z</time></trkpt><trkpt lat="42.08562143261723" lon="1.8575127412033687"><ele>579.0</ele><time>2026-03-30T07:47:25Z</time></trkpt><trkpt lat="42.085767596389886" lon="1.857356955048306"><ele>583.0</ele><time>2026-03-30T07:47:26Z</time></trkpt><trkpt lat="42.0859088907548" lon="1.8571968358201427"><ele>587.0</ele><time>2026-03-30T07:47:27Z</time></trkpt><trkpt lat="42.086048999678994" lon="1.8570383577550333"><ele>587.0</ele><time>2026-03-30T07:47:28Z</time></trkpt><trkpt lat="42.08618966103995" lon="1.856883862273863"><ele>587.0</ele><time>2026-03-30T07:47:29Z</time></trkpt><trkpt lat="42.08647817674375" lon="1.8565911186596435"><ele>589.3333333333333</ele><time>2026-03-30T07:47:31Z</time></trkpt><trkpt lat="42.08663146680712" lon="1.8564698582023422"><ele>591.6666666666666</ele><time>2026-03-30T07:47:32Z</time></trkpt><trkpt lat="42.08679211773107" lon="1.8563669693512839"><ele>594.0</ele><time>2026-03-30T07:47:33Z</time></trkpt><trkpt lat="42.086958402898574" lon="1.8562758776520563"><ele>594.0</ele><time>2026-03-30T07:47:34Z</time></trkpt><trkpt lat="42.08712551661382" lon="1.8562026537358876"><ele>594.0</ele><time>2026-03-30T07:47:35Z</time></trkpt><trkpt lat="42.08729726028058" lon="1.8561501968672909"><ele>594.0</ele><time>2026-03-30T07:47:36Z</time></trkpt><trkpt lat="42.08747139478963" lon="1.8561095458084886"><ele>597.3333333333334</ele><time>2026-03-30T07:47:37Z</time></trkpt><trkpt lat="42.087646205099304" lon="1.8560704480164674"><ele>600.6666666666667</ele><time>2026-03-30T07:47:38Z</time></trkpt><trkpt lat="42.087817493717345" lon="1.8560224377445567"><ele>604.0</ele><time>2026-03-30T07:47:39Z</time></trkpt><trkpt lat="42.08798333529992" lon="1.8559718334742934"><ele>601.75</ele><time>2026-03-30T07:47:40Z</time></trkpt><trkpt lat="42.0881317619515" lon="1.8559164379898714"><ele>599.5</ele><time>2026-03-30T07:47:41Z</time></trkpt><trkpt lat="42.08825451171065" lon="1.8558369459661859"><ele>597.25</ele><time>2026-03-30T07:47:42Z</time></trkpt><trkpt lat="42.08834640613665" lon="1.8557265567185817"><ele>595.0</ele><time>2026-03-30T07:47:43Z</time></trkpt><trkpt lat="42.08841275928874" lon="1.8556046947204043"><ele>595.0</ele><time>2026-03-30T07:47:44Z</time></trkpt><trkpt lat="42.08845936110691" lon="1.8554795980743384"><ele>595.0</ele><time>2026-03-30T07:47:45Z</time></trkpt><trkpt lat="42.0885019386231" lon="1.8553658431699767"><ele>595.0</ele><time>2026-03-30T07:47:46Z</time></trkpt><trkpt lat="42.088607357822184" lon="1.8553164730887295"><ele>595.0</ele><time>2026-03-30T07:47:47Z</time></trkpt><trkpt lat="42.088675114650165" lon="1.855236593145899"><ele>595.0</ele><time>2026-03-30T07:47:48Z</time></trkpt><trkpt lat="42.08868515323498" lon="1.8551090044072736"><ele>593.75</ele><time>2026-03-30T07:47:49Z</time></trkpt><trkpt lat="42.088643249268216" lon="1.8549854013867524"><ele>592.5</ele><time>2026-03-30T07:47:50Z</time></trkpt><trkpt lat="42.08857265628811" lon="1.8548597760965864"><ele>591.25</ele><time>2026-03-30T07:47:51Z</time></trkpt><trkpt lat="42.08849715948064" lon="1.8547124610860548"><ele>590.0</ele><time>2026-03-30T07:47:52Z</time></trkpt><trkpt lat="42.08843791399121" lon="1.854568089969666"><ele>590.0</ele><time>2026-03-30T07:47:53Z</time></trkpt><trkpt lat="42.08839375979031" lon="1.854430217293789"><ele>590.0</ele><time>2026-03-30T07:47:54Z</time></trkpt><trkpt lat="42.088372935612064" lon="1.8542843010275158"><ele>590.0</ele><time>2026-03-30T07:47:55Z</time></trkpt><trkpt lat="42.08839496788973" lon="1.854127979061226"><ele>590.0</ele><time>2026-03-30T07:47:56Z</time></trkpt><trkpt lat="42.088501298240246" lon="1.854026926175935"><ele>591.25</ele><time>2026-03-30T07:47:57Z</time></trkpt><trkpt lat="42.08861223087649" lon="1.8539575146532894"><ele>592.5</ele><time>2026-03-30T07:47:58Z</time></trkpt><trkpt lat="42.08872946444891" lon="1.8538529713522396"><ele>593.75</ele><time>2026-03-30T07:47:59Z</time></trkpt><trkpt lat="42.08885574009786" lon="1.8537689923450102"><ele>595.0</ele><time>2026-03-30T07:48:00Z</time></trkpt><trkpt lat="42.08898474492933" lon="1.853673859975249"><ele>595.75</ele><time>2026-03-30T07:48:01Z</time></trkpt><trkpt lat="42.08911554575187" lon="1.853577063827164"><ele>596.5</ele><time>2026-03-30T07:48:02Z</time></trkpt><trkpt lat="42.089236596363385" lon="1.8534857904231117"><ele>597.25</ele><time>2026-03-30T07:48:03Z</time></trkpt><trkpt lat="42.089343905700495" lon="1.853404509709987"><ele>598.0</ele><time>2026-03-30T07:48:04Z</time></trkpt><trkpt lat="42.08945253830391" lon="1.853320875082917"><ele>600.0</ele><time>2026-03-30T07:48:05Z</time></trkpt><trkpt lat="42.08956828939743" lon="1.8532320749250912"><ele>602.0</ele><time>2026-03-30T07:48:06Z</time></trkpt><trkpt lat="42.08969003625002" lon="1.8531383051000274"><ele>604.0</ele><time>2026-03-30T07:48:07Z</time></trkpt><trkpt lat="42.08981823061697" lon="1.853042700998477"><ele>606.0</ele><time>2026-03-30T07:48:08Z</time></trkpt><trkpt lat="42.089950228826524" lon="1.8529402513051274"><ele>606.6666666666666</ele><time>2026-03-30T07:48:09Z</time></trkpt><trkpt lat="42.0900840653535" lon="1.8528378082669623"><ele>607.3333333333333</ele><time>2026-03-30T07:48:10Z</time></trkpt><trkpt lat="42.09021840474135" lon="1.8527340610221834"><ele>608.0</ele><time>2026-03-30T07:48:11Z</time></trkpt><trkpt lat="42.090352305045876" lon="1.8526338085194798"><ele>609.3333333333333</ele><time>2026-03-30T07:48:12Z</time></trkpt><trkpt lat="42.090487477884885" lon="1.852532285562546"><ele>610.6666666666666</ele><time>2026-03-30T07:48:13Z</time></trkpt><trkpt lat="42.090620174454216" lon="1.852426335363025"><ele>612.0</ele><time>2026-03-30T07:48:14Z</time></trkpt><trkpt lat="42.09075096102355" lon="1.852317917625628"><ele>611.75</ele><time>2026-03-30T07:48:15Z</time></trkpt><trkpt lat="42.09087672914922" lon="1.8522107076684164"><ele>611.5</ele><time>2026-03-30T07:48:16Z</time></trkpt><trkpt lat="42.090990336048776" lon="1.8520913205877092"><ele>611.25</ele><time>2026-03-30T07:48:17Z</time></trkpt><trkpt lat="42.09109721815142" lon="1.8519669843227355"><ele>611.0</ele><time>2026-03-30T07:48:18Z</time></trkpt><trkpt lat="42.09120600996966" lon="1.8518327500840792"><ele>613.6666666666666</ele><time>2026-03-30T07:48:19Z</time></trkpt><trkpt lat="42.09132211327916" lon="1.8516949791336137"><ele>616.3333333333334</ele><time>2026-03-30T07:48:20Z</time></trkpt><trkpt lat="42.091441530076445" lon="1.8515559593282935"><ele>619.0</ele><time>2026-03-30T07:48:21Z</time></trkpt><trkpt lat="42.09156034588684" lon="1.8514143837492714"><ele>619.3333333333334</ele><time>2026-03-30T07:48:22Z</time></trkpt><trkpt lat="42.09166450172048" lon="1.851253172028347"><ele>619.6666666666666</ele><time>2026-03-30T07:48:23Z</time></trkpt><trkpt lat="42.0917510216067" lon="1.85107383167778"><ele>620.0</ele><time>2026-03-30T07:48:24Z</time></trkpt><trkpt lat="42.09182797922438" lon="1.8508805216966573"><ele>620.0</ele><time>2026-03-30T07:48:25Z</time></trkpt><trkpt lat="42.091886504074644" lon="1.8506751033196962"><ele>620.0</ele><time>2026-03-30T07:48:26Z</time></trkpt><trkpt lat="42.09193477818157" lon="1.8504586498559592"><ele>620.0</ele><time>2026-03-30T07:48:27Z</time></trkpt><trkpt lat="42.09199263161602" lon="1.8502470303880543"><ele>621.6666666666666</ele><time>2026-03-30T07:48:28Z</time></trkpt><trkpt lat="42.09204700584628" lon="1.850039997637805"><ele>623.3333333333334</ele><time>2026-03-30T07:48:29Z</time></trkpt><trkpt lat="42.09210201294791" lon="1.8498320945961757"><ele>625.0</ele><time>2026-03-30T07:48:30Z</time></trkpt><trkpt lat="42.092156455301" lon="1.849643271955114"><ele>625.0</ele><time>2026-03-30T07:48:31Z</time></trkpt><trkpt lat="42.092206494524405" lon="1.8494797683365678"><ele>625.0</ele><time>2026-03-30T07:48:32Z</time></trkpt><trkpt lat="42.092253284553934" lon="1.8493335677727019"><ele>625.0</ele><time>2026-03-30T07:48:33Z</time></trkpt><trkpt lat="42.09230032845268" lon="1.8491708870867978"><ele>625.0</ele><time>2026-03-30T07:48:34Z</time></trkpt><trkpt lat="42.09237454920655" lon="1.8490160513306426"><ele>626.5</ele><time>2026-03-30T07:48:35Z</time></trkpt><trkpt lat="42.09248669845094" lon="1.8489131889903785"><ele>628.0</ele><time>2026-03-30T07:48:36Z</time></trkpt><trkpt lat="42.092614358046234" lon="1.8488582873881787"><ele>629.5</ele><time>2026-03-30T07:48:37Z</time></trkpt><trkpt lat="42.09274221573385" lon="1.8489539238296901"><ele>631.0</ele><time>2026-03-30T07:48:38Z</time></trkpt><trkpt lat="42.092819008606504" lon="1.8490843029240251"><ele>631.0</ele><time>2026-03-30T07:48:39Z</time></trkpt><trkpt lat="42.092909918544315" lon="1.8492260598277077"><ele>631.0</ele><time>2026-03-30T07:48:40Z</time></trkpt><trkpt lat="42.09301374711824" lon="1.849365760708404"><ele>631.0</ele><time>2026-03-30T07:48:41Z</time></trkpt><trkpt lat="42.093113128979816" lon="1.8494976686593128"><ele>631.0</ele><time>2026-03-30T07:48:42Z</time></trkpt><trkpt lat="42.09321394205771" lon="1.8496245755991962"><ele>632.25</ele><time>2026-03-30T07:48:43Z</time></trkpt><trkpt lat="42.093311219179256" lon="1.8497508040852786"><ele>633.5</ele><time>2026-03-30T07:48:44Z</time></trkpt><trkpt lat="42.093405022132586" lon="1.8498792899962753"><ele>634.75</ele><time>2026-03-30T07:48:45Z</time></trkpt><trkpt lat="42.0934952069758" lon="1.850002212194043"><ele>636.0</ele><time>2026-03-30T07:48:46Z</time></trkpt><trkpt lat="42.0935746556721" lon="1.8501062675270832"><ele>635.6666666666666</ele><time>2026-03-30T07:48:47Z</time></trkpt><trkpt lat="42.09364129753364" lon="1.8501905652221715"><ele>635.3333333333334</ele><time>2026-03-30T07:48:48Z</time></trkpt><trkpt lat="42.09370521266573" lon="1.850266263826824"><ele>635.0</ele><time>2026-03-30T07:48:49Z</time></trkpt><trkpt lat="42.09377484677946" lon="1.850334463477696"><ele>634.6666666666667</ele><time>2026-03-30T07:48:50Z</time></trkpt><trkpt lat="42.09383995392516" lon="1.8503984753591838"><ele>634.3333333333334</ele><time>2026-03-30T07:48:51Z</time></trkpt><trkpt lat="42.0938887599608" lon="1.8504877413131129"><ele>634.0</ele><time>2026-03-30T07:48:52Z</time></trkpt><trkpt lat="42.093933726379795" lon="1.850595604464908"><ele>634.0</ele><time>2026-03-30T07:48:53Z</time></trkpt><trkpt lat="42.09400128062091" lon="1.850690186133131"><ele>634.0</ele><time>2026-03-30T07:48:54Z</time></trkpt><trkpt lat="42.094099364990825" lon="1.8507367249971909"><ele>634.0</ele><time>2026-03-30T07:48:55Z</time></trkpt><trkpt lat="42.09420831520907" lon="1.8507162438385627"><ele>634.0</ele><time>2026-03-30T07:48:56Z</time></trkpt><trkpt lat="42.094297465638206" lon="1.8506319158360178"><ele>634.0</ele><time>2026-03-30T07:48:57Z</time></trkpt><trkpt lat="42.09434629974954" lon="1.8505106433915957"><ele>634.8</ele><time>2026-03-30T07:48:58Z</time></trkpt><trkpt lat="42.094366124758395" lon="1.850382447443838"><ele>635.5999999999999</ele><time>2026-03-30T07:48:59Z</time></trkpt><trkpt lat="42.094380974271424" lon="1.850247079256116"><ele>636.4</ele><time>2026-03-30T07:49:00Z</time></trkpt><trkpt lat="42.094406213631125" lon="1.8501138118506115"><ele>637.1999999999999</ele><time>2026-03-30T07:49:01Z</time></trkpt><trkpt lat="42.094444496257005" lon="1.8499866846941524"><ele>638.0</ele><time>2026-03-30T07:49:02Z</time></trkpt><trkpt lat="42.09448895395039" lon="1.8498587333048526"><ele>639.0</ele><time>2026-03-30T07:49:03Z</time></trkpt><trkpt lat="42.09453574900252" lon="1.8497327840273063"><ele>640.0</ele><time>2026-03-30T07:49:04Z</time></trkpt><trkpt lat="42.09459212622854" lon="1.8496065545595555"><ele>641.0</ele><time>2026-03-30T07:49:05Z</time></trkpt><trkpt lat="42.0946609219624" lon="1.8494738244458022"><ele>642.0</ele><time>2026-03-30T07:49:06Z</time></trkpt><trkpt lat="42.09473876511124" lon="1.8493472384385221"><ele>641.5</ele><time>2026-03-30T07:49:07Z</time></trkpt><trkpt lat="42.09482166146515" lon="1.8492227202606601"><ele>641.0</ele><time>2026-03-30T07:49:08Z</time></trkpt><trkpt lat="42.09490491267087" lon="1.8491000573652359"><ele>640.5</ele><time>2026-03-30T07:49:09Z</time></trkpt><trkpt lat="42.0949878901613" lon="1.8489789311517968"><ele>640.0</ele><time>2026-03-30T07:49:10Z</time></trkpt><trkpt lat="42.09507182358505" lon="1.848858741194687"><ele>642.25</ele><time>2026-03-30T07:49:11Z</time></trkpt><trkpt lat="42.09515521140356" lon="1.8487383574552239"><ele>644.5</ele><time>2026-03-30T07:49:12Z</time></trkpt><trkpt lat="42.09524057181605" lon="1.8486175419408741"><ele>646.75</ele><time>2026-03-30T07:49:13Z</time></trkpt><trkpt lat="42.09532819357604" lon="1.8484971948675173"><ele>649.0</ele><time>2026-03-30T07:49:14Z</time></trkpt><trkpt lat="42.09541305581701" lon="1.848375027645072"><ele>649.0</ele><time>2026-03-30T07:49:15Z</time></trkpt><trkpt lat="42.0954979807995" lon="1.8482538582079047"><ele>649.0</ele><time>2026-03-30T07:49:16Z</time></trkpt><trkpt lat="42.09558024518437" lon="1.8481317758404587"><ele>649.0</ele><time>2026-03-30T07:49:17Z</time></trkpt><trkpt lat="42.0956652213521" lon="1.8480123253761398"><ele>649.0</ele><time>2026-03-30T07:49:18Z</time></trkpt><trkpt lat="42.09575306437543" lon="1.8478905071845253"><ele>650.75</ele><time>2026-03-30T07:49:19Z</time></trkpt><trkpt lat="42.09584253770471" lon="1.847768610795711"><ele>652.5</ele><time>2026-03-30T07:49:20Z</time></trkpt><trkpt lat="42.09593709789188" lon="1.8476501804058267"><ele>654.25</ele><time>2026-03-30T07:49:21Z</time></trkpt><trkpt lat="42.09604510363766" lon="1.8475434430569184"><ele>656.0</ele><time>2026-03-30T07:49:22Z</time></trkpt><trkpt lat="42.096164570436976" lon="1.8474533684843726"><ele>656.0</ele><time>2026-03-30T07:49:23Z</time></trkpt><trkpt lat="42.09629337554606" lon="1.8473800482742846"><ele>656.0</ele><time>2026-03-30T07:49:24Z</time></trkpt><trkpt lat="42.0964284617028" lon="1.8473210463282066"><ele>656.0</ele><time>2026-03-30T07:49:25Z</time></trkpt><trkpt lat="42.09656589336693" lon="1.847262872164296"><ele>656.0</ele><time>2026-03-30T07:49:26Z</time></trkpt><trkpt lat="42.09671146053836" lon="1.847201196864385"><ele>660.6666666666666</ele><time>2026-03-30T07:49:27Z</time></trkpt><trkpt lat="42.096868228567914" lon="1.8471345212714094"><ele>665.3333333333334</ele><time>2026-03-30T07:49:28Z</time></trkpt><trkpt lat="42.09702242897579" lon="1.8470634897485012"><ele>670.0</ele><time>2026-03-30T07:49:29Z</time></trkpt><trkpt lat="42.097161715912165" lon="1.8469995147990002"><ele>670.0</ele><time>2026-03-30T07:49:30Z</time></trkpt><trkpt lat="42.09727983815882" lon="1.846943986851552"><ele>670.0</ele><time>2026-03-30T07:49:31Z</time></trkpt><trkpt lat="42.09740014704165" lon="1.846885370098559"><ele>670.0</ele><time>2026-03-30T07:49:32Z</time></trkpt><trkpt lat="42.097508139719444" lon="1.8468369029314622"><ele>670.0</ele><time>2026-03-30T07:49:33Z</time></trkpt><trkpt lat="42.09760463509273" lon="1.8467939846330317"><ele>669.8333333333334</ele><time>2026-03-30T07:49:34Z</time></trkpt><trkpt lat="42.09768712148674" lon="1.8467563385448593"><ele>669.6666666666667</ele><time>2026-03-30T07:49:35Z</time></trkpt><trkpt lat="42.09775351156843" lon="1.8467248701498504"><ele>669.5</ele><time>2026-03-30T07:49:36Z</time></trkpt><trkpt lat="42.09781878729952" lon="1.8467115965432621"><ele>669.3333333333334</ele><time>2026-03-30T07:49:37Z</time></trkpt><trkpt lat="42.09788868370857" lon="1.8467109500789374"><ele>669.1666666666666</ele><time>2026-03-30T07:49:38Z</time></trkpt><trkpt lat="42.09796589752016" lon="1.8467108847403861"><ele>669.0</ele><time>2026-03-30T07:49:39Z</time></trkpt><trkpt lat="42.09805331971761" lon="1.846680962311669"><ele>669.0</ele><time>2026-03-30T07:49:40Z</time></trkpt><trkpt lat="42.098134386279746" lon="1.846628084255058"><ele>669.0</ele><time>2026-03-30T07:49:41Z</time></trkpt><trkpt lat="42.098219378578676" lon="1.8465357005179899"><ele>669.0</ele><time>2026-03-30T07:49:42Z</time></trkpt><trkpt lat="42.09831202412445" lon="1.8464851326743887"><ele>669.0</ele><time>2026-03-30T07:49:43Z</time></trkpt><trkpt lat="42.09838354341576" lon="1.8464534550663638"><ele>669.0</ele><time>2026-03-30T07:49:44Z</time></trkpt><trkpt lat="42.09845480055217" lon="1.846404833072886"><ele>671.1666666666666</ele><time>2026-03-30T07:49:45Z</time></trkpt><trkpt lat="42.0985320215984" lon="1.8463755130981576"><ele>673.3333333333334</ele><time>2026-03-30T07:49:46Z</time></trkpt><trkpt lat="42.098589834270264" lon="1.8463378645450612"><ele>675.5</ele><time>2026-03-30T07:49:47Z</time></trkpt><trkpt lat="42.09867014403918" lon="1.8462770454466062"><ele>677.6666666666667</ele><time>2026-03-30T07:49:49Z</time></trkpt><trkpt lat="42.09873802856633" lon="1.846230402965131"><ele>679.8333333333334</ele><time>2026-03-30T07:49:52Z</time></trkpt><trkpt lat="42.09880105921135" lon="1.8461843363344914"><ele>682.0</ele><time>2026-03-30T07:50:01Z</time></trkpt><trkpt lat="42.09886428287247" lon="1.8461223193187293"><ele>682.0</ele><time>2026-03-30T07:50:09Z</time></trkpt><trkpt lat="42.09896687289054" lon="1.846024395295923"><ele>682.0</ele><time>2026-03-30T07:50:11Z</time></trkpt><trkpt lat="42.0990709807747" lon="1.8459184515485678"><ele>682.0</ele><time>2026-03-30T07:50:13Z</time></trkpt><trkpt lat="42.099129947574035" lon="1.845854357470139"><ele>682.0</ele><time>2026-03-30T07:50:14Z</time></trkpt><trkpt lat="42.09917618247015" lon="1.8457739844762828"><ele>682.0</ele><time>2026-03-30T07:50:15Z</time></trkpt><trkpt lat="42.09920608411979" lon="1.8456888974377714"><ele>682.4000000000001</ele><time>2026-03-30T07:50:16Z</time></trkpt><trkpt lat="42.09919308361918" lon="1.8455985499077256"><ele>682.8000000000001</ele><time>2026-03-30T07:50:17Z</time></trkpt><trkpt lat="42.09912550660018" lon="1.8454668886284875"><ele>683.2</ele><time>2026-03-30T07:50:19Z</time></trkpt><trkpt lat="42.099085259909835" lon="1.8453757088521914"><ele>683.6</ele><time>2026-03-30T07:50:21Z</time></trkpt><trkpt lat="42.098964474427014" lon="1.8453066573529198"><ele>684.0</ele><time>2026-03-30T07:50:24Z</time></trkpt><trkpt lat="42.0990998433209" lon="1.8451955858213176"><ele>683.9999999999999</ele><time>2026-03-30T07:50:26Z</time></trkpt><trkpt lat="42.09910308928363" lon="1.8450962001425395"><ele>684.0</ele><time>2026-03-30T07:50:46Z</time></trkpt><trkpt lat="42.09913897329808" lon="1.8450065851082138"><ele>684.0</ele><time>2026-03-30T07:50:48Z</time></trkpt><trkpt lat="42.099132331737955" lon="1.8449159053542823"><ele>684.0</ele><time>2026-03-30T07:50:52Z</time></trkpt><trkpt lat="42.09908105457587" lon="1.8448313133105594"><ele>684.0</ele><time>2026-03-30T07:53:11Z</time></trkpt><trkpt lat="42.09904181850303" lon="1.844744287295115"><ele>683.9999999999999</ele><time>2026-03-30T07:56:48Z</time></trkpt><trkpt lat="42.09902775977684" lon="1.8446591592001411"><ele>684.0</ele><time>2026-03-30T07:56:50Z</time></trkpt><trkpt lat="42.098953780151916" lon="1.844573033008463"><ele>683.0</ele><time>2026-03-30T07:56:52Z</time></trkpt><trkpt lat="42.09891401239377" lon="1.8444393953464133"><ele>682.0</ele><time>2026-03-30T07:56:54Z</time></trkpt><trkpt lat="42.098929241432685" lon="1.8443559023794158"><ele>681.0</ele><time>2026-03-30T07:56:55Z</time></trkpt><trkpt lat="42.098910845481434" lon="1.844208207428508"><ele>680.0</ele><time>2026-03-30T07:56:57Z</time></trkpt><trkpt lat="42.09890061082089" lon="1.8441244376951105"><ele>679.0</ele><time>2026-03-30T07:56:58Z</time></trkpt><trkpt lat="42.09886741138133" lon="1.843975522147473"><ele>679.0</ele><time>2026-03-30T07:57:00Z</time></trkpt><trkpt lat="42.098872474259814" lon="1.8438764289978344"><ele>679.0</ele><time>2026-03-30T07:57:01Z</time></trkpt><trkpt lat="42.09886110900033" lon="1.8437762558568112"><ele>679.0</ele><time>2026-03-30T07:57:02Z</time></trkpt><trkpt lat="42.09885075993718" lon="1.8436820056224303"><ele>679.0</ele><time>2026-03-30T07:57:03Z</time></trkpt><trkpt lat="42.09884008923352" lon="1.8435863446520315"><ele>679.0</ele><time>2026-03-30T07:57:04Z</time></trkpt><trkpt lat="42.098829629010915" lon="1.8434925716676593"><ele>679.0</ele><time>2026-03-30T07:57:05Z</time></trkpt><trkpt lat="42.0988195138787" lon="1.8434018968897563"><ele>679.0</ele><time>2026-03-30T07:57:06Z</time></trkpt><trkpt lat="42.09881062212413" lon="1.8433081024759401"><ele>679.5</ele><time>2026-03-30T07:57:07Z</time></trkpt><trkpt lat="42.09880137890632" lon="1.8432126272527793"><ele>680.0</ele><time>2026-03-30T07:57:08Z</time></trkpt><trkpt lat="42.098793020036894" lon="1.8431167139318454"><ele>680.5</ele><time>2026-03-30T07:57:09Z</time></trkpt><trkpt lat="42.09878550963486" lon="1.843015077568331"><ele>681.0</ele><time>2026-03-30T07:57:10Z</time></trkpt><trkpt lat="42.09877508424695" lon="1.842873993571857"><ele>681.5</ele><time>2026-03-30T07:57:12Z</time></trkpt><trkpt lat="42.098766804741366" lon="1.8427418718192887"><ele>682.0</ele><time>2026-03-30T07:57:14Z</time></trkpt><trkpt lat="42.09876667647114" lon="1.8426065421902151"><ele>683.6</ele><time>2026-03-30T07:57:16Z</time></trkpt><trkpt lat="42.09875454098006" lon="1.8424418661264885"><ele>685.2</ele><time>2026-03-30T07:57:18Z</time></trkpt><trkpt lat="42.09876965426684" lon="1.8423493356252398"><ele>686.8</ele><time>2026-03-30T07:57:19Z</time></trkpt><trkpt lat="42.098788632867276" lon="1.8422652838063194"><ele>688.4</ele><time>2026-03-30T07:57:20Z</time></trkpt><trkpt lat="42.09884462769741" lon="1.8421417816972507"><ele>690.0</ele><time>2026-03-30T07:57:22Z</time></trkpt><trkpt lat="42.098898809674225" lon="1.8420120358828649"><ele>690.0</ele><time>2026-03-30T07:57:24Z</time></trkpt><trkpt lat="42.098940940775194" lon="1.84190536135593"><ele>690.0</ele><time>2026-03-30T07:57:26Z</time></trkpt><trkpt lat="42.09898214908488" lon="1.8418364650094992"><ele>690.0</ele><time>2026-03-30T07:57:28Z</time></trkpt><trkpt lat="42.09891204773519" lon="1.8417336010880572"><ele>690.0</ele><time>2026-03-30T07:57:29Z</time></trkpt><trkpt lat="42.09881651336913" lon="1.8416416938147888"><ele>690.0</ele><time>2026-03-30T07:57:31Z</time></trkpt><trkpt lat="42.09871866050865" lon="1.8415611418536584"><ele>691.0</ele><time>2026-03-30T07:57:33Z</time></trkpt><trkpt lat="42.09863563051217" lon="1.84149302339324"><ele>692.0</ele><time>2026-03-30T07:57:35Z</time></trkpt><trkpt lat="42.09856899955147" lon="1.841434280949932"><ele>693.0</ele><time>2026-03-30T07:57:37Z</time></trkpt><trkpt lat="42.09851390956096" lon="1.8413789888448575"><ele>694.0</ele><time>2026-03-30T07:57:41Z</time></trkpt><trkpt lat="42.098479910747606" lon="1.8412957462774775"><ele>695.0</ele><time>2026-03-30T07:57:43Z</time></trkpt><trkpt lat="42.098401078666654" lon="1.8412387687979417"><ele>696.0</ele><time>2026-03-30T07:57:45Z</time></trkpt><trkpt lat="42.09834001852091" lon="1.8411651294135472"><ele>696.0</ele><time>2026-03-30T07:57:47Z</time></trkpt><trkpt lat="42.098254230034314" lon="1.8410807017333244"><ele>696.0</ele><time>2026-03-30T07:57:49Z</time></trkpt><trkpt lat="42.09817429437846" lon="1.841028853494687"><ele>696.0</ele><time>2026-03-30T07:57:51Z</time></trkpt><trkpt lat="42.09812476131124" lon="1.8409455753150537"><ele>696.0</ele><time>2026-03-30T07:58:54Z</time></trkpt><trkpt lat="42.09805564025784" lon="1.840874765787081"><ele>696.0</ele><time>2026-03-30T07:58:56Z</time></trkpt><trkpt lat="42.0979925105402" lon="1.8408165707653497"><ele>696.0</ele><time>2026-03-30T07:58:57Z</time></trkpt><trkpt lat="42.09787378442777" lon="1.840703902153809"><ele>693.5</ele><time>2026-03-30T07:58:59Z</time></trkpt><trkpt lat="42.097796188289585" lon="1.8406160126569997"><ele>691.0</ele><time>2026-03-30T07:59:00Z</time></trkpt><trkpt lat="42.09769876762553" lon="1.8405025082019066"><ele>688.5</ele><time>2026-03-30T07:59:01Z</time></trkpt><trkpt lat="42.09761176478611" lon="1.8404011575254116"><ele>686.0</ele><time>2026-03-30T07:59:02Z</time></trkpt><trkpt lat="42.097530328888894" lon="1.8403057817856596"><ele>686.0</ele><time>2026-03-30T07:59:03Z</time></trkpt><trkpt lat="42.09744620765401" lon="1.8402050314112726"><ele>686.0</ele><time>2026-03-30T07:59:04Z</time></trkpt><trkpt lat="42.097370075639134" lon="1.8401142148614913"><ele>686.0</ele><time>2026-03-30T07:59:05Z</time></trkpt><trkpt lat="42.097298920788305" lon="1.8400313307132081"><ele>686.0</ele><time>2026-03-30T07:59:06Z</time></trkpt><trkpt lat="42.09723592219029" lon="1.8399506184726813"><ele>686.0</ele><time>2026-03-30T07:59:07Z</time></trkpt><trkpt lat="42.09717859788586" lon="1.8398803229624774"><ele>685.0</ele><time>2026-03-30T07:59:08Z</time></trkpt><trkpt lat="42.0971224349653" lon="1.8398181370445377"><ele>684.0</ele><time>2026-03-30T07:59:09Z</time></trkpt><trkpt lat="42.09707066560988" lon="1.8397570219739723"><ele>683.0</ele><time>2026-03-30T07:59:10Z</time></trkpt><trkpt lat="42.09701266906782" lon="1.8396918492517753"><ele>682.0</ele><time>2026-03-30T07:59:11Z</time></trkpt><trkpt lat="42.096951832314645" lon="1.8396202911083812"><ele>681.0</ele><time>2026-03-30T07:59:12Z</time></trkpt><trkpt lat="42.09688782764477" lon="1.8395406854348957"><ele>680.0</ele><time>2026-03-30T07:59:13Z</time></trkpt><trkpt lat="42.09681918806934" lon="1.839460310385107"><ele>680.0</ele><time>2026-03-30T07:59:14Z</time></trkpt><trkpt lat="42.09674459437215" lon="1.8393741790287848"><ele>680.0</ele><time>2026-03-30T07:59:15Z</time></trkpt><trkpt lat="42.09666541295459" lon="1.839276688660971"><ele>680.0</ele><time>2026-03-30T07:59:16Z</time></trkpt><trkpt lat="42.096584242668364" lon="1.8391884565400132"><ele>680.0</ele><time>2026-03-30T07:59:17Z</time></trkpt><trkpt lat="42.09650610661563" lon="1.8390967736730697"><ele>680.0</ele><time>2026-03-30T07:59:18Z</time></trkpt><trkpt lat="42.09643232381501" lon="1.8390097395721892"><ele>680.0</ele><time>2026-03-30T07:59:19Z</time></trkpt><trkpt lat="42.096363078324536" lon="1.8389289255091137"><ele>680.0</ele><time>2026-03-30T07:59:20Z</time></trkpt><trkpt lat="42.096297925627255" lon="1.8388545008296984"><ele>680.0</ele><time>2026-03-30T07:59:21Z</time></trkpt><trkpt lat="42.09624580180289" lon="1.8387954425392714"><ele>680.0</ele><time>2026-03-30T07:59:22Z</time></trkpt><trkpt lat="42.09616459377769" lon="1.8386982670342873"><ele>680.0</ele><time>2026-03-30T07:59:24Z</time></trkpt><trkpt lat="42.09611646131915" lon="1.8386383494598955"><ele>680.0</ele><time>2026-03-30T07:59:25Z</time></trkpt><trkpt lat="42.096065508022015" lon="1.8385756167555964"><ele>680.0</ele><time>2026-03-30T07:59:26Z</time></trkpt><trkpt lat="42.09601506503433" lon="1.8385061014594588"><ele>680.0</ele><time>2026-03-30T07:59:27Z</time></trkpt><trkpt lat="42.09596420693622" lon="1.8384305515856738"><ele>680.0</ele><time>2026-03-30T07:59:28Z</time></trkpt><trkpt lat="42.09592101341555" lon="1.8383427516768052"><ele>680.0</ele><time>2026-03-30T07:59:29Z</time></trkpt><trkpt lat="42.09588640414959" lon="1.8382469823631853"><ele>680.0</ele><time>2026-03-30T07:59:30Z</time></trkpt><trkpt lat="42.09585647577797" lon="1.8381466749886306"><ele>680.0</ele><time>2026-03-30T07:59:31Z</time></trkpt><trkpt lat="42.095834991577725" lon="1.8380403022704783"><ele>681.2</ele><time>2026-03-30T07:59:32Z</time></trkpt><trkpt lat="42.095828546445226" lon="1.8379381053153272"><ele>682.4</ele><time>2026-03-30T07:59:33Z</time></trkpt><trkpt lat="42.09581486547795" lon="1.8378087281401125"><ele>683.5999999999999</ele><time>2026-03-30T07:59:34Z</time></trkpt><trkpt lat="42.09579715878253" lon="1.8376976208046194"><ele>684.8</ele><time>2026-03-30T07:59:35Z</time></trkpt><trkpt lat="42.09578957195869" lon="1.8376070022012045"><ele>686.0</ele><time>2026-03-30T07:59:36Z</time></trkpt><trkpt lat="42.09577965037183" lon="1.8374346359491682"><ele>686.5999999999999</ele><time>2026-03-30T07:59:38Z</time></trkpt><trkpt lat="42.095769282178715" lon="1.837330477386835"><ele>687.2</ele><time>2026-03-30T07:59:39Z</time></trkpt><trkpt lat="42.09576104515144" lon="1.8372019621544298"><ele>687.8</ele><time>2026-03-30T07:59:40Z</time></trkpt><trkpt lat="42.09575238320171" lon="1.8370592428154933"><ele>688.4000000000001</ele><time>2026-03-30T07:59:41Z</time></trkpt><trkpt lat="42.09574157321147" lon="1.8369202131710969"><ele>689.0</ele><time>2026-03-30T07:59:42Z</time></trkpt><trkpt lat="42.09573649965581" lon="1.8367763723451571"><ele>687.2</ele><time>2026-03-30T07:59:43Z</time></trkpt><trkpt lat="42.09572961214819" lon="1.8366373009395158"><ele>685.4000000000001</ele><time>2026-03-30T07:59:44Z</time></trkpt><trkpt lat="42.09572448046516" lon="1.8365000803605613"><ele>683.6</ele><time>2026-03-30T07:59:45Z</time></trkpt><trkpt lat="42.09571782829247" lon="1.8363648854468133"><ele>681.8</ele><time>2026-03-30T07:59:46Z</time></trkpt><trkpt lat="42.09569881869594" lon="1.8362284447894208"><ele>680.0</ele><time>2026-03-30T07:59:47Z</time></trkpt><trkpt lat="42.09566489044442" lon="1.836097216383469"><ele>680.0</ele><time>2026-03-30T07:59:48Z</time></trkpt><trkpt lat="42.09561802885241" lon="1.8359710776207763"><ele>680.0</ele><time>2026-03-30T07:59:49Z</time></trkpt><trkpt lat="42.09557680690102" lon="1.8358218102904653"><ele>680.0</ele><time>2026-03-30T07:59:50Z</time></trkpt><trkpt lat="42.09548739380209" lon="1.8357044408090963"><ele>680.0</ele><time>2026-03-30T07:59:51Z</time></trkpt><trkpt lat="42.0954215666191" lon="1.8355841754380902"><ele>681.8</ele><time>2026-03-30T07:59:52Z</time></trkpt><trkpt lat="42.09536945791343" lon="1.8354762817861703"><ele>683.6</ele><time>2026-03-30T07:59:53Z</time></trkpt><trkpt lat="42.09531999353465" lon="1.8353754483614253"><ele>685.4000000000001</ele><time>2026-03-30T07:59:54Z</time></trkpt><trkpt lat="42.09526602524183" lon="1.8352686917025867"><ele>687.2</ele><time>2026-03-30T07:59:55Z</time></trkpt><trkpt lat="42.09520916491615" lon="1.8351560113454772"><ele>689.0</ele><time>2026-03-30T07:59:56Z</time></trkpt><trkpt lat="42.09515067390641" lon="1.8350430454557773"><ele>689.6</ele><time>2026-03-30T07:59:57Z</time></trkpt><trkpt lat="42.095081589579124" lon="1.8349380392113679"><ele>690.2</ele><time>2026-03-30T07:59:58Z</time></trkpt><trkpt lat="42.09500583955532" lon="1.8348423128505515"><ele>690.8000000000001</ele><time>2026-03-30T07:59:59Z</time></trkpt><trkpt lat="42.094918197547685" lon="1.834773021042566"><ele>691.4000000000001</ele><time>2026-03-30T08:00:00Z</time></trkpt><trkpt lat="42.0948155331764" lon="1.8347434375736418"><ele>692.0</ele><time>2026-03-30T08:00:01Z</time></trkpt><trkpt lat="42.094713271516355" lon="1.8347323736234131"><ele>692.0</ele><time>2026-03-30T08:00:02Z</time></trkpt><trkpt lat="42.09460537078103" lon="1.834744026614313"><ele>692.0</ele><time>2026-03-30T08:00:03Z</time></trkpt><trkpt lat="42.094509477300136" lon="1.8347248118999375"><ele>692.0</ele><time>2026-03-30T08:00:04Z</time></trkpt><trkpt lat="42.09443073257196" lon="1.8347092778441143"><ele>692.0</ele><time>2026-03-30T08:00:05Z</time></trkpt><trkpt lat="42.09436200548083" lon="1.8346922027013308"><ele>692.0</ele><time>2026-03-30T08:00:06Z</time></trkpt><trkpt lat="42.09429856460748" lon="1.8346856765514354"><ele>692.0</ele><time>2026-03-30T08:00:07Z</time></trkpt><trkpt lat="42.094203264093686" lon="1.8346719969260945"><ele>692.0</ele><time>2026-03-30T08:00:09Z</time></trkpt><trkpt lat="42.09411341448607" lon="1.8346543156131365"><ele>692.0</ele><time>2026-03-30T08:00:11Z</time></trkpt><trkpt lat="42.09402555487701" lon="1.8346420119809561"><ele>692.0</ele><time>2026-03-30T08:00:13Z</time></trkpt><trkpt lat="42.09392489456453" lon="1.8346190319437998"><ele>692.0</ele><time>2026-03-30T08:00:15Z</time></trkpt><trkpt lat="42.09384561184058" lon="1.8346033382066598"><ele>692.0</ele><time>2026-03-30T08:00:16Z</time></trkpt><trkpt lat="42.09374721742328" lon="1.8345885360890197"><ele>692.8</ele><time>2026-03-30T08:00:17Z</time></trkpt><trkpt lat="42.093651879390244" lon="1.834573428754301"><ele>693.6</ele><time>2026-03-30T08:00:18Z</time></trkpt><trkpt lat="42.09356161142178" lon="1.8345581231726322"><ele>694.4</ele><time>2026-03-30T08:00:19Z</time></trkpt><trkpt lat="42.09347157880068" lon="1.8345410739003252"><ele>695.1999999999999</ele><time>2026-03-30T08:00:20Z</time></trkpt><trkpt lat="42.093380735755474" lon="1.8345232717017517"><ele>696.0</ele><time>2026-03-30T08:00:21Z</time></trkpt><trkpt lat="42.093280905630124" lon="1.8345069252936455"><ele>694.75</ele><time>2026-03-30T08:00:22Z</time></trkpt><trkpt lat="42.0931724983603" lon="1.8344855871658121"><ele>693.5</ele><time>2026-03-30T08:00:23Z</time></trkpt><trkpt lat="42.09305719090821" lon="1.8344629919700886"><ele>692.25</ele><time>2026-03-30T08:00:24Z</time></trkpt><trkpt lat="42.0929413000786" lon="1.834398517435467"><ele>691.0</ele><time>2026-03-30T08:00:25Z</time></trkpt><trkpt lat="42.09282205655793" lon="1.834350283470624"><ele>691.25</ele><time>2026-03-30T08:00:26Z</time></trkpt><trkpt lat="42.09269769630395" lon="1.8342859300904806"><ele>691.5</ele><time>2026-03-30T08:00:27Z</time></trkpt><trkpt lat="42.09257375955735" lon="1.8342010608397865"><ele>691.75</ele><time>2026-03-30T08:00:28Z</time></trkpt><trkpt lat="42.09245727095263" lon="1.8340991477256523"><ele>692.0</ele><time>2026-03-30T08:00:29Z</time></trkpt><trkpt lat="42.09235821082803" lon="1.8339801023970175"><ele>692.0</ele><time>2026-03-30T08:00:30Z</time></trkpt><trkpt lat="42.09226255223094" lon="1.8338555344176157"><ele>692.0</ele><time>2026-03-30T08:00:31Z</time></trkpt><trkpt lat="42.09216979183509" lon="1.8337248320712836"><ele>692.0</ele><time>2026-03-30T08:00:32Z</time></trkpt><trkpt lat="42.09207420234962" lon="1.8335901434914417"><ele>692.0</ele><time>2026-03-30T08:00:33Z</time></trkpt><trkpt lat="42.09197385612935" lon="1.8334486485583665"><ele>694.0</ele><time>2026-03-30T08:00:34Z</time></trkpt><trkpt lat="42.091871538305135" lon="1.833303540049217"><ele>696.0</ele><time>2026-03-30T08:00:35Z</time></trkpt><trkpt lat="42.091765548340135" lon="1.8331532236447883"><ele>698.0</ele><time>2026-03-30T08:00:36Z</time></trkpt><trkpt lat="42.09165802022627" lon="1.833000725743966"><ele>698.3333333333333</ele><time>2026-03-30T08:00:37Z</time></trkpt><trkpt lat="42.09154937252562" lon="1.8328466399138061"><ele>698.6666666666666</ele><time>2026-03-30T08:00:38Z</time></trkpt><trkpt lat="42.0914402793557" lon="1.8326919225836666"><ele>699.0</ele><time>2026-03-30T08:00:39Z</time></trkpt><trkpt lat="42.09132951937847" lon="1.8325348412857605"><ele>700.0</ele><time>2026-03-30T08:00:40Z</time></trkpt><trkpt lat="42.09122290859556" lon="1.832383644486511"><ele>701.0</ele><time>2026-03-30T08:00:41Z</time></trkpt><trkpt lat="42.09111726234511" lon="1.8322336524491731"><ele>702.0</ele><time>2026-03-30T08:00:42Z</time></trkpt><trkpt lat="42.091011040134795" lon="1.8320827615509971"><ele>702.0</ele><time>2026-03-30T08:00:43Z</time></trkpt><trkpt lat="42.0909060933578" lon="1.8319336826197197"><ele>702.0</ele><time>2026-03-30T08:00:44Z</time></trkpt><trkpt lat="42.09080347715392" lon="1.8317879143666613"><ele>702.0</ele><time>2026-03-30T08:00:45Z</time></trkpt><trkpt lat="42.09070459580008" lon="1.8316474512619318"><ele>702.0</ele><time>2026-03-30T08:00:46Z</time></trkpt><trkpt lat="42.090607172067045" lon="1.8315090589032028"><ele>703.25</ele><time>2026-03-30T08:00:47Z</time></trkpt><trkpt lat="42.09050961244627" lon="1.8313704736198595"><ele>704.5</ele><time>2026-03-30T08:00:48Z</time></trkpt><trkpt lat="42.09041351597792" lon="1.831233966604673"><ele>705.75</ele><time>2026-03-30T08:00:49Z</time></trkpt><trkpt lat="42.09031755588671" lon="1.8310976534647119"><ele>707.0</ele><time>2026-03-30T08:00:50Z</time></trkpt><trkpt lat="42.090229096935815" lon="1.830972009240814"><ele>707.0</ele><time>2026-03-30T08:00:51Z</time></trkpt><trkpt lat="42.09014966170357" lon="1.8308592225325233"><ele>707.0</ele><time>2026-03-30T08:00:52Z</time></trkpt><trkpt lat="42.090080122477225" lon="1.8307604377054043"><ele>707.0</ele><time>2026-03-30T08:00:53Z</time></trkpt><trkpt lat="42.09002972009232" lon="1.8306877062010662"><ele>707.0</ele><time>2026-03-30T08:00:54Z</time></trkpt><trkpt lat="42.08998598214835" lon="1.8306245907115843"><ele>707.0</ele><time>2026-03-30T08:00:55Z</time></trkpt><trkpt lat="42.089939780632236" lon="1.8305579216206431"><ele>707.0</ele><time>2026-03-30T08:00:56Z</time></trkpt><trkpt lat="42.08988777369174" lon="1.8304858127696566"><ele>706.5</ele><time>2026-03-30T08:00:57Z</time></trkpt><trkpt lat="42.08983381772149" lon="1.8304086125115537"><ele>706.0</ele><time>2026-03-30T08:00:58Z</time></trkpt><trkpt lat="42.08977311602814" lon="1.8303512183880997"><ele>705.5</ele><time>2026-03-30T08:00:59Z</time></trkpt><trkpt lat="42.08972063578981" lon="1.8302731974711943"><ele>705.0</ele><time>2026-03-30T08:01:00Z</time></trkpt><trkpt lat="42.08966326381464" lon="1.8301795091593362"><ele>704.5</ele><time>2026-03-30T08:01:01Z</time></trkpt><trkpt lat="42.08962762862919" lon="1.83007412287011"><ele>704.0</ele><time>2026-03-30T08:01:02Z</time></trkpt><trkpt lat="42.08961616190831" lon="1.8299620171148354"><ele>704.0</ele><time>2026-03-30T08:01:03Z</time></trkpt><trkpt lat="42.08960683297001" lon="1.829848525444992"><ele>704.0</ele><time>2026-03-30T08:01:04Z</time></trkpt><trkpt lat="42.089572985004494" lon="1.829722031259607"><ele>704.0</ele><time>2026-03-30T08:01:05Z</time></trkpt><trkpt lat="42.08951255234509" lon="1.8296000633123175"><ele>704.0</ele><time>2026-03-30T08:01:06Z</time></trkpt><trkpt lat="42.08938896853485" lon="1.8295465566090323"><ele>704.0</ele><time>2026-03-30T08:01:07Z</time></trkpt><trkpt lat="42.08926678983203" lon="1.8295009371191588"><ele>704.0</ele><time>2026-03-30T08:01:08Z</time></trkpt><trkpt lat="42.08914105232969" lon="1.829444380132172"><ele>704.0</ele><time>2026-03-30T08:01:09Z</time></trkpt><trkpt lat="42.08902825273313" lon="1.829334645575778"><ele>704.0</ele><time>2026-03-30T08:01:10Z</time></trkpt><trkpt lat="42.088953230148576" lon="1.829154998624537"><ele>704.0</ele><time>2026-03-30T08:01:11Z</time></trkpt><trkpt lat="42.088856551258665" lon="1.8290165905370261"><ele>702.75</ele><time>2026-03-30T08:01:12Z</time></trkpt><trkpt lat="42.0887615178055" lon="1.8288805380133406"><ele>701.5</ele><time>2026-03-30T08:01:13Z</time></trkpt><trkpt lat="42.08867570280346" lon="1.8287585727986035"><ele>700.25</ele><time>2026-03-30T08:01:14Z</time></trkpt><trkpt lat="42.088596322459225" lon="1.8286467937746471"><ele>699.0</ele><time>2026-03-30T08:01:15Z</time></trkpt><trkpt lat="42.088523089692565" lon="1.8285436714787104"><ele>700.2</ele><time>2026-03-30T08:01:16Z</time></trkpt><trkpt lat="42.0884436411474" lon="1.8284608222555447"><ele>701.4000000000001</ele><time>2026-03-30T08:01:17Z</time></trkpt><trkpt lat="42.08838352462529" lon="1.8283568323371093"><ele>702.6</ele><time>2026-03-30T08:01:18Z</time></trkpt><trkpt lat="42.08835802524564" lon="1.82821934829227"><ele>703.8</ele><time>2026-03-30T08:01:19Z</time></trkpt><trkpt lat="42.08835544128395" lon="1.8280637721838322"><ele>705.0</ele><time>2026-03-30T08:01:20Z</time></trkpt><trkpt lat="42.08831616990152" lon="1.8279225204912415"><ele>704.25</ele><time>2026-03-30T08:01:21Z</time></trkpt><trkpt lat="42.08822434549462" lon="1.827827864384149"><ele>703.5</ele><time>2026-03-30T08:01:22Z</time></trkpt><trkpt lat="42.08810334847975" lon="1.827773290280511"><ele>702.75</ele><time>2026-03-30T08:01:23Z</time></trkpt><trkpt lat="42.088010589250985" lon="1.8276826055177224"><ele>702.0</ele><time>2026-03-30T08:01:24Z</time></trkpt><trkpt lat="42.08792688290821" lon="1.8275720521506653"><ele>702.0</ele><time>2026-03-30T08:01:25Z</time></trkpt><trkpt lat="42.08796055453329" lon="1.8273239600657225"><ele>702.0</ele><time>2026-03-30T08:01:26Z</time></trkpt><trkpt lat="42.08791810798771" lon="1.8271348017356663"><ele>702.0</ele><time>2026-03-30T08:01:27Z</time></trkpt><trkpt lat="42.08787580554269" lon="1.826944507639472"><ele>702.5</ele><time>2026-03-30T08:01:28Z</time></trkpt><trkpt lat="42.08783123686075" lon="1.8267547065088983"><ele>703.0</ele><time>2026-03-30T08:01:29Z</time></trkpt><trkpt lat="42.08778859029078" lon="1.8265609685909734"><ele>703.5</ele><time>2026-03-30T08:01:30Z</time></trkpt><trkpt lat="42.087748421263825" lon="1.8263831522015397"><ele>704.0</ele><time>2026-03-30T08:01:31Z</time></trkpt><trkpt lat="42.08770539466819" lon="1.826221586107519"><ele>704.0</ele><time>2026-03-30T08:01:32Z</time></trkpt><trkpt lat="42.08765516595164" lon="1.8260757423281337"><ele>704.0</ele><time>2026-03-30T08:01:33Z</time></trkpt><trkpt lat="42.087582744177745" lon="1.8259513088477586"><ele>704.0</ele><time>2026-03-30T08:01:34Z</time></trkpt><trkpt lat="42.08747702483106" lon="1.8258502036910824"><ele>704.0</ele><time>2026-03-30T08:01:35Z</time></trkpt><trkpt lat="42.08735001009761" lon="1.8257694705252958"><ele>703.6666666666666</ele><time>2026-03-30T08:01:36Z</time></trkpt><trkpt lat="42.08721377307573" lon="1.8256844639253538"><ele>703.3333333333334</ele><time>2026-03-30T08:01:37Z</time></trkpt><trkpt lat="42.08707690953624" lon="1.825588824275612"><ele>703.0</ele><time>2026-03-30T08:01:38Z</time></trkpt><trkpt lat="42.08693747692542" lon="1.8254868155703787"><ele>703.0</ele><time>2026-03-30T08:01:39Z</time></trkpt><trkpt lat="42.08680209554434" lon="1.825387284560187"><ele>703.0</ele><time>2026-03-30T08:01:40Z</time></trkpt><trkpt lat="42.08668153673295" lon="1.825300531116228"><ele>703.0</ele><time>2026-03-30T08:01:41Z</time></trkpt><trkpt lat="42.08656790389567" lon="1.8252179707148188"><ele>703.0</ele><time>2026-03-30T08:01:42Z</time></trkpt><trkpt lat="42.08645156522004" lon="1.8251325151125137"><ele>704.5</ele><time>2026-03-30T08:01:43Z</time></trkpt><trkpt lat="42.08633272272381" lon="1.8250457112346674"><ele>706.0</ele><time>2026-03-30T08:01:44Z</time></trkpt><trkpt lat="42.08621572269008" lon="1.8249605381292933"><ele>707.5</ele><time>2026-03-30T08:01:45Z</time></trkpt><trkpt lat="42.08611008947919" lon="1.82487889840392"><ele>709.0</ele><time>2026-03-30T08:01:46Z</time></trkpt><trkpt lat="42.086020019913434" lon="1.824796889853096"><ele>709.0</ele><time>2026-03-30T08:01:47Z</time></trkpt><trkpt lat="42.08596016747329" lon="1.824684953606267"><ele>709.0</ele><time>2026-03-30T08:01:48Z</time></trkpt><trkpt lat="42.08591352072616" lon="1.824581723937958"><ele>709.0</ele><time>2026-03-30T08:01:49Z</time></trkpt><trkpt lat="42.085884135204815" lon="1.8244694108201767"><ele>709.0</ele><time>2026-03-30T08:01:50Z</time></trkpt><trkpt lat="42.08585641447946" lon="1.8243413227787113"><ele>709.0</ele><time>2026-03-30T08:01:51Z</time></trkpt><trkpt lat="42.085871669021735" lon="1.8241986607147822"><ele>709.25</ele><time>2026-03-30T08:01:52Z</time></trkpt><trkpt lat="42.08590875729586" lon="1.8240545675515707"><ele>709.5</ele><time>2026-03-30T08:01:53Z</time></trkpt><trkpt lat="42.08595362736759" lon="1.8239084597077315"><ele>709.75</ele><time>2026-03-30T08:01:54Z</time></trkpt><trkpt lat="42.085989475266054" lon="1.823757414018689"><ele>710.0</ele><time>2026-03-30T08:01:55Z</time></trkpt><trkpt lat="42.08601890730956" lon="1.8236103856380692"><ele>708.8</ele><time>2026-03-30T08:01:56Z</time></trkpt><trkpt lat="42.08604846863819" lon="1.823463477045318"><ele>707.6</ele><time>2026-03-30T08:01:57Z</time></trkpt><trkpt lat="42.08607926175331" lon="1.823323749796403"><ele>706.4000000000001</ele><time>2026-03-30T08:01:58Z</time></trkpt><trkpt lat="42.086106931600995" lon="1.8231905258131689"><ele>705.2</ele><time>2026-03-30T08:01:59Z</time></trkpt><trkpt lat="42.08613126822451" lon="1.8230583501467001"><ele>704.0</ele><time>2026-03-30T08:02:00Z</time></trkpt><trkpt lat="42.08615488072327" lon="1.8229274516651013"><ele>704.0</ele><time>2026-03-30T08:02:01Z</time></trkpt><trkpt lat="42.08617375621516" lon="1.822801473164236"><ele>704.0</ele><time>2026-03-30T08:02:02Z</time></trkpt><trkpt lat="42.086175376515726" lon="1.8226717462499924"><ele>704.0</ele><time>2026-03-30T08:02:03Z</time></trkpt><trkpt lat="42.086147116787615" lon="1.8225398792395544"><ele>704.0</ele><time>2026-03-30T08:02:04Z</time></trkpt><trkpt lat="42.08608549502314" lon="1.822422188490781"><ele>704.0</ele><time>2026-03-30T08:02:05Z</time></trkpt><trkpt lat="42.08599927694691" lon="1.822330937350596"><ele>704.5</ele><time>2026-03-30T08:02:06Z</time></trkpt><trkpt lat="42.085910085255605" lon="1.8222493622377158"><ele>705.0</ele><time>2026-03-30T08:02:07Z</time></trkpt><trkpt lat="42.085818012191815" lon="1.822158840902196"><ele>705.5</ele><time>2026-03-30T08:02:08Z</time></trkpt><trkpt lat="42.08572351573086" lon="1.8220595475674646"><ele>706.0</ele><time>2026-03-30T08:02:09Z</time></trkpt><trkpt lat="42.0856269722028" lon="1.8219531985246682"><ele>705.5</ele><time>2026-03-30T08:02:10Z</time></trkpt><trkpt lat="42.08552725386636" lon="1.821845352803255"><ele>705.0</ele><time>2026-03-30T08:02:11Z</time></trkpt><trkpt lat="42.08542603217866" lon="1.8217372317840024"><ele>704.5</ele><time>2026-03-30T08:02:12Z</time></trkpt><trkpt lat="42.08532899778126" lon="1.8216281555854958"><ele>704.0</ele><time>2026-03-30T08:02:13Z</time></trkpt><trkpt lat="42.08523475717356" lon="1.8215176742909678"><ele>704.0</ele><time>2026-03-30T08:02:14Z</time></trkpt><trkpt lat="42.08514240840345" lon="1.8214020654730056"><ele>704.0</ele><time>2026-03-30T08:02:15Z</time></trkpt><trkpt lat="42.08505437617765" lon="1.8212783980713891"><ele>704.0</ele><time>2026-03-30T08:02:16Z</time></trkpt><trkpt lat="42.08497621088928" lon="1.821160660852978"><ele>704.0</ele><time>2026-03-30T08:02:17Z</time></trkpt><trkpt lat="42.08490731860343" lon="1.8210422416395713"><ele>703.75</ele><time>2026-03-30T08:02:18Z</time></trkpt><trkpt lat="42.08483710601998" lon="1.8209255224701055"><ele>703.5</ele><time>2026-03-30T08:02:19Z</time></trkpt><trkpt lat="42.08476923986223" lon="1.820809658955769"><ele>703.25</ele><time>2026-03-30T08:02:20Z</time></trkpt><trkpt lat="42.084697091190506" lon="1.8206910614229195"><ele>703.0</ele><time>2026-03-30T08:02:21Z</time></trkpt><trkpt lat="42.08462190397774" lon="1.8205712182101896"><ele>703.0</ele><time>2026-03-30T08:02:22Z</time></trkpt><trkpt lat="42.08454981097501" lon="1.8204543641542088"><ele>703.0</ele><time>2026-03-30T08:02:23Z</time></trkpt><trkpt lat="42.08448187564237" lon="1.8203356149900447"><ele>703.0</ele><time>2026-03-30T08:02:24Z</time></trkpt><trkpt lat="42.08441012408364" lon="1.820224534710894"><ele>703.0</ele><time>2026-03-30T08:02:25Z</time></trkpt><trkpt lat="42.084324676047174" lon="1.8201422863963796"><ele>703.0</ele><time>2026-03-30T08:02:26Z</time></trkpt><trkpt lat="42.084223135406894" lon="1.8200901146553856"><ele>704.75</ele><time>2026-03-30T08:02:27Z</time></trkpt><trkpt lat="42.084113717160946" lon="1.8200740485059912"><ele>706.5</ele><time>2026-03-30T08:02:28Z</time></trkpt><trkpt lat="42.0839936504439" lon="1.8200885024093074"><ele>708.25</ele><time>2026-03-30T08:02:29Z</time></trkpt><trkpt lat="42.08387105155374" lon="1.8201055361731844"><ele>710.0</ele><time>2026-03-30T08:02:30Z</time></trkpt><trkpt lat="42.08374374745501" lon="1.8201056157593443"><ele>710.5</ele><time>2026-03-30T08:02:31Z</time></trkpt><trkpt lat="42.08361576351382" lon="1.8201003291735223"><ele>711.0</ele><time>2026-03-30T08:02:32Z</time></trkpt><trkpt lat="42.08351049262326" lon="1.820145633974071"><ele>711.5</ele><time>2026-03-30T08:02:33Z</time></trkpt><trkpt lat="42.08338501709059" lon="1.8201596020064097"><ele>712.0</ele><time>2026-03-30T08:02:34Z</time></trkpt><trkpt lat="42.08325545817435" lon="1.8201734534216607"><ele>708.5</ele><time>2026-03-30T08:02:35Z</time></trkpt><trkpt lat="42.08312704908353" lon="1.8201853558949201"><ele>705.0</ele><time>2026-03-30T08:02:36Z</time></trkpt><trkpt lat="42.08300439555127" lon="1.8201950058114258"><ele>701.5</ele><time>2026-03-30T08:02:37Z</time></trkpt><trkpt lat="42.08288466296498" lon="1.82020923051619"><ele>698.0</ele><time>2026-03-30T08:02:38Z</time></trkpt><trkpt lat="42.08275136348004" lon="1.8201993432475143"><ele>698.0</ele><time>2026-03-30T08:02:39Z</time></trkpt><trkpt lat="42.08261192136874" lon="1.8201760544767263"><ele>698.0</ele><time>2026-03-30T08:02:40Z</time></trkpt><trkpt lat="42.082478613791245" lon="1.8201282226014421"><ele>698.0</ele><time>2026-03-30T08:02:41Z</time></trkpt><trkpt lat="42.08234365994152" lon="1.8200731107161405"><ele>698.0</ele><time>2026-03-30T08:02:42Z</time></trkpt><trkpt lat="42.082210442702156" lon="1.820032126640224"><ele>699.25</ele><time>2026-03-30T08:02:43Z</time></trkpt><trkpt lat="42.08208221283278" lon="1.8199743067300376"><ele>700.5</ele><time>2026-03-30T08:02:44Z</time></trkpt><trkpt lat="42.081955722634675" lon="1.819916142279632"><ele>701.75</ele><time>2026-03-30T08:02:45Z</time></trkpt><trkpt lat="42.08182937479043" lon="1.8198589081516783"><ele>703.0</ele><time>2026-03-30T08:02:46Z</time></trkpt><trkpt lat="42.081698560488405" lon="1.8198055821247041"><ele>702.25</ele><time>2026-03-30T08:02:47Z</time></trkpt><trkpt lat="42.08156625094372" lon="1.8197509093591588"><ele>701.5</ele><time>2026-03-30T08:02:48Z</time></trkpt><trkpt lat="42.08144491254854" lon="1.819700099529941"><ele>700.75</ele><time>2026-03-30T08:02:49Z</time></trkpt><trkpt lat="42.08133442174721" lon="1.8196564004637406"><ele>700.0</ele><time>2026-03-30T08:02:50Z</time></trkpt><trkpt lat="42.08123164157026" lon="1.8196189372897806"><ele>700.0</ele><time>2026-03-30T08:02:51Z</time></trkpt><trkpt lat="42.08113565848828" lon="1.8195822558296297"><ele>700.0</ele><time>2026-03-30T08:02:52Z</time></trkpt><trkpt lat="42.081041756793915" lon="1.819541482512206"><ele>700.0</ele><time>2026-03-30T08:02:53Z</time></trkpt><trkpt lat="42.08093429373613" lon="1.8195001825624064"><ele>700.0</ele><time>2026-03-30T08:02:54Z</time></trkpt><trkpt lat="42.08082372700755" lon="1.8194607384361843"><ele>700.0</ele><time>2026-03-30T08:02:55Z</time></trkpt><trkpt lat="42.08070757069365" lon="1.8194140188865937"><ele>702.0</ele><time>2026-03-30T08:02:56Z</time></trkpt><trkpt lat="42.080590730235734" lon="1.8193597390576803"><ele>704.0</ele><time>2026-03-30T08:02:57Z</time></trkpt><trkpt lat="42.08047862842021" lon="1.8192826618387017"><ele>706.0</ele><time>2026-03-30T08:02:58Z</time></trkpt><trkpt lat="42.08038110204539" lon="1.8191752323561945"><ele>708.0</ele><time>2026-03-30T08:02:59Z</time></trkpt><trkpt lat="42.08030098025989" lon="1.819053323380038"><ele>708.0</ele><time>2026-03-30T08:03:00Z</time></trkpt><trkpt lat="42.08023798715328" lon="1.818917596093217"><ele>708.0</ele><time>2026-03-30T08:03:01Z</time></trkpt><trkpt lat="42.08018112381585" lon="1.8187675232387723"><ele>708.0</ele><time>2026-03-30T08:03:02Z</time></trkpt><trkpt lat="42.08013524599532" lon="1.8186028181692027"><ele>708.0</ele><time>2026-03-30T08:03:03Z</time></trkpt><trkpt lat="42.08010237952325" lon="1.818429697930238"><ele>708.0</ele><time>2026-03-30T08:03:04Z</time></trkpt><trkpt lat="42.080086958603886" lon="1.818245406819547"><ele>708.0</ele><time>2026-03-30T08:03:05Z</time></trkpt><trkpt lat="42.080078862767714" lon="1.81806424736767"><ele>708.0</ele><time>2026-03-30T08:03:06Z</time></trkpt><trkpt lat="42.08007814793441" lon="1.8178756476847737"><ele>708.0</ele><time>2026-03-30T08:03:07Z</time></trkpt><trkpt lat="42.080070311009656" lon="1.817665815978477"><ele>708.0</ele><time>2026-03-30T08:03:08Z</time></trkpt><trkpt lat="42.08005818088577" lon="1.8174409953755"><ele>708.0</ele><time>2026-03-30T08:03:09Z</time></trkpt><trkpt lat="42.080044729779054" lon="1.8172330637124758"><ele>708.0</ele><time>2026-03-30T08:03:10Z</time></trkpt><trkpt lat="42.08003205059565" lon="1.8170287356119772"><ele>708.0</ele><time>2026-03-30T08:03:11Z</time></trkpt><trkpt lat="42.08002003008686" lon="1.8168224432398759"><ele>708.0</ele><time>2026-03-30T08:03:12Z</time></trkpt><trkpt lat="42.08000983888336" lon="1.816613890715947"><ele>708.0</ele><time>2026-03-30T08:03:13Z</time></trkpt><trkpt lat="42.08000308216582" lon="1.8164116820011444"><ele>708.25</ele><time>2026-03-30T08:03:14Z</time></trkpt><trkpt lat="42.079998384214754" lon="1.8162232196444759"><ele>708.5</ele><time>2026-03-30T08:03:15Z</time></trkpt><trkpt lat="42.08000718051152" lon="1.8160322003641984"><ele>708.75</ele><time>2026-03-30T08:03:16Z</time></trkpt><trkpt lat="42.08007642996366" lon="1.8158566034003203"><ele>709.0</ele><time>2026-03-30T08:03:17Z</time></trkpt><trkpt lat="42.08018545256514" lon="1.815716208264325"><ele>709.5</ele><time>2026-03-30T08:03:18Z</time></trkpt><trkpt lat="42.08030903848406" lon="1.8155953004134044"><ele>710.0</ele><time>2026-03-30T08:03:19Z</time></trkpt><trkpt lat="42.08042806908169" lon="1.8154904887811525"><ele>710.5</ele><time>2026-03-30T08:03:20Z</time></trkpt><trkpt lat="42.08054036248305" lon="1.81538597634258"><ele>711.0</ele><time>2026-03-30T08:03:21Z</time></trkpt><trkpt lat="42.080624804053656" lon="1.8152631951638132"><ele>709.75</ele><time>2026-03-30T08:03:22Z</time></trkpt><trkpt lat="42.080659086081454" lon="1.8151147327942414"><ele>708.5</ele><time>2026-03-30T08:03:23Z</time></trkpt><trkpt lat="42.080626971694194" lon="1.8149578224351732"><ele>707.25</ele><time>2026-03-30T08:03:24Z</time></trkpt><trkpt lat="42.080549058952236" lon="1.814811076598884"><ele>706.0</ele><time>2026-03-30T08:03:25Z</time></trkpt><trkpt lat="42.08046528557124" lon="1.8146684636294483"><ele>706.0</ele><time>2026-03-30T08:03:26Z</time></trkpt><trkpt lat="42.08040033456404" lon="1.814553313965908"><ele>706.0</ele><time>2026-03-30T08:03:27Z</time></trkpt><trkpt lat="42.08035476411381" lon="1.8144563000954983"><ele>706.0</ele><time>2026-03-30T08:03:28Z</time></trkpt><trkpt lat="42.080304512870384" lon="1.8143693788159978"><ele>706.0</ele><time>2026-03-30T08:03:29Z</time></trkpt><trkpt lat="42.08023720955014" lon="1.8142920279095496"><ele>706.0</ele><time>2026-03-30T08:03:30Z</time></trkpt><trkpt lat="42.08013004711713" lon="1.8142211028537416"><ele>707.3333333333334</ele><time>2026-03-30T08:03:31Z</time></trkpt><trkpt lat="42.07998932206917" lon="1.814179100107673"><ele>708.6666666666666</ele><time>2026-03-30T08:03:32Z</time></trkpt><trkpt lat="42.07982153064187" lon="1.8141633508881396"><ele>710.0</ele><time>2026-03-30T08:03:33Z</time></trkpt><trkpt lat="42.079636501903565" lon="1.8141589069281427"><ele>710.3333333333333</ele><time>2026-03-30T08:03:34Z</time></trkpt><trkpt lat="42.07946699360945" lon="1.8141482946071013"><ele>710.6666666666666</ele><time>2026-03-30T08:03:35Z</time></trkpt><trkpt lat="42.07930264071056" lon="1.8141354783113843"><ele>711.0</ele><time>2026-03-30T08:03:36Z</time></trkpt><trkpt lat="42.07915039561313" lon="1.8141233076064627"><ele>710.3333333333334</ele><time>2026-03-30T08:03:37Z</time></trkpt><trkpt lat="42.0790018756468" lon="1.814108927892441"><ele>709.6666666666667</ele><time>2026-03-30T08:03:38Z</time></trkpt><trkpt lat="42.07884842101653" lon="1.8140870555793351"><ele>709.0</ele><time>2026-03-30T08:03:39Z</time></trkpt><trkpt lat="42.07867965730649" lon="1.8140317934439412"><ele>709.0</ele><time>2026-03-30T08:03:40Z</time></trkpt><trkpt lat="42.078527196612505" lon="1.8138817703163321"><ele>709.0</ele><time>2026-03-30T08:03:41Z</time></trkpt><trkpt lat="42.0783651151256" lon="1.8137715768725282"><ele>709.0</ele><time>2026-03-30T08:03:42Z</time></trkpt><trkpt lat="42.07820391916102" lon="1.8136603588529816"><ele>709.3333333333334</ele><time>2026-03-30T08:03:43Z</time></trkpt><trkpt lat="42.078035513546666" lon="1.8135531421789206"><ele>709.6666666666666</ele><time>2026-03-30T08:03:44Z</time></trkpt><trkpt lat="42.07786430677859" lon="1.8134722538643302"><ele>710.0</ele><time>2026-03-30T08:03:45Z</time></trkpt><trkpt lat="42.077696871826575" lon="1.8133892707526622"><ele>710.3333333333333</ele><time>2026-03-30T08:03:46Z</time></trkpt><trkpt lat="42.077522450281194" lon="1.813330409983828"><ele>710.6666666666666</ele><time>2026-03-30T08:03:47Z</time></trkpt><trkpt lat="42.07733044137106" lon="1.813290326254537"><ele>711.0</ele><time>2026-03-30T08:03:48Z</time></trkpt><trkpt lat="42.07712734232711" lon="1.8132199001382312"><ele>711.0</ele><time>2026-03-30T08:03:49Z</time></trkpt><trkpt lat="42.076927133426345" lon="1.8131704823462267"><ele>711.0</ele><time>2026-03-30T08:03:50Z</time></trkpt><trkpt lat="42.07672838671599" lon="1.8131214254811328"><ele>711.0</ele><time>2026-03-30T08:03:51Z</time></trkpt><trkpt lat="42.07652799411073" lon="1.8130719487368412"><ele>711.0</ele><time>2026-03-30T08:03:52Z</time></trkpt><trkpt lat="42.07632772449783" lon="1.813020018709068"><ele>711.0</ele><time>2026-03-30T08:03:53Z</time></trkpt><trkpt lat="42.07613565276206" lon="1.8129743102064158"><ele>711.0</ele><time>2026-03-30T08:03:54Z</time></trkpt><trkpt lat="42.07595228201119" lon="1.8129327915673885"><ele>711.0</ele><time>2026-03-30T08:03:55Z</time></trkpt><trkpt lat="42.07577711992345" lon="1.812892803683038"><ele>711.0</ele><time>2026-03-30T08:03:56Z</time></trkpt><trkpt lat="42.07561051309943" lon="1.8128369470317405"><ele>711.0</ele><time>2026-03-30T08:03:57Z</time></trkpt><trkpt lat="42.075470691464965" lon="1.8127308208564161"><ele>712.3333333333334</ele><time>2026-03-30T08:03:58Z</time></trkpt><trkpt lat="42.07533976614335" lon="1.8125683131562935"><ele>713.6666666666667</ele><time>2026-03-30T08:03:59Z</time></trkpt><trkpt lat="42.07520214502429" lon="1.81237892785339"><ele>715.0</ele><time>2026-03-30T08:04:00Z</time></trkpt><trkpt lat="42.07505522708704" lon="1.8121978929571576"><ele>715.0</ele><time>2026-03-30T08:04:01Z</time></trkpt><trkpt lat="42.07491945199803" lon="1.8120023044664484"><ele>715.0</ele><time>2026-03-30T08:04:02Z</time></trkpt><trkpt lat="42.07477963731127" lon="1.811806961590837"><ele>715.0</ele><time>2026-03-30T08:04:03Z</time></trkpt><trkpt lat="42.07465790306503" lon="1.8116016860492525"><ele>715.0</ele><time>2026-03-30T08:04:04Z</time></trkpt><trkpt lat="42.074517050685515" lon="1.8114405080663472"><ele>715.0</ele><time>2026-03-30T08:04:05Z</time></trkpt><trkpt lat="42.07436898409504" lon="1.8112988728945507"><ele>715.0</ele><time>2026-03-30T08:04:06Z</time></trkpt><trkpt lat="42.074175945098695" lon="1.8112123307404473"><ele>714.0</ele><time>2026-03-30T08:04:07Z</time></trkpt><trkpt lat="42.073953519897366" lon="1.8111895354514114"><ele>713.0</ele><time>2026-03-30T08:04:08Z</time></trkpt><trkpt lat="42.073750061546065" lon="1.8111399507663815"><ele>712.0</ele><time>2026-03-30T08:04:09Z</time></trkpt><trkpt lat="42.07355940390816" lon="1.8110951042014931"><ele>712.0</ele><time>2026-03-30T08:04:10Z</time></trkpt><trkpt lat="42.073372217199434" lon="1.8110510740538126"><ele>712.0</ele><time>2026-03-30T08:04:11Z</time></trkpt><trkpt lat="42.07318935025513" lon="1.8109867930538643"><ele>712.0</ele><time>2026-03-30T08:04:12Z</time></trkpt><trkpt lat="42.07301491067734" lon="1.8109052313418033"><ele>714.6666666666667</ele><time>2026-03-30T08:04:13Z</time></trkpt><trkpt lat="42.07283945738352" lon="1.8108050327302316"><ele>717.3333333333334</ele><time>2026-03-30T08:04:14Z</time></trkpt><trkpt lat="42.07265181251613" lon="1.810692950632659"><ele>720.0</ele><time>2026-03-30T08:04:15Z</time></trkpt><trkpt lat="42.07245700349696" lon="1.81059690220095"><ele>719.0</ele><time>2026-03-30T08:04:16Z</time></trkpt><trkpt lat="42.072271360401594" lon="1.8104859142825402"><ele>718.0</ele><time>2026-03-30T08:04:17Z</time></trkpt><trkpt lat="42.07209164643259" lon="1.8103576543935957"><ele>717.0</ele><time>2026-03-30T08:04:18Z</time></trkpt><trkpt lat="42.07190672524525" lon="1.8102469569650166"><ele>718.3333333333334</ele><time>2026-03-30T08:04:19Z</time></trkpt><trkpt lat="42.071724377377144" lon="1.8101370146137121"><ele>719.6666666666667</ele><time>2026-03-30T08:04:20Z</time></trkpt><trkpt lat="42.071548968856995" lon="1.8100143370556037"><ele>721.0</ele><time>2026-03-30T08:04:21Z</time></trkpt><trkpt lat="42.07138380716352" lon="1.809881987167209"><ele>721.0</ele><time>2026-03-30T08:04:22Z</time></trkpt><trkpt lat="42.07123310110035" lon="1.8097388034045554"><ele>721.0</ele><time>2026-03-30T08:04:23Z</time></trkpt><trkpt lat="42.07108248058866" lon="1.8095925252811897"><ele>721.0</ele><time>2026-03-30T08:04:24Z</time></trkpt><trkpt lat="42.070930854081546" lon="1.809445270087582"><ele>722.3333333333334</ele><time>2026-03-30T08:04:25Z</time></trkpt><trkpt lat="42.07076749484013" lon="1.8093114380617865"><ele>723.6666666666666</ele><time>2026-03-30T08:04:26Z</time></trkpt><trkpt lat="42.07061294995076" lon="1.8091595840959982"><ele>725.0</ele><time>2026-03-30T08:04:27Z</time></trkpt><trkpt lat="42.0704555761277" lon="1.8090062867202041"><ele>725.0</ele><time>2026-03-30T08:04:28Z</time></trkpt><trkpt lat="42.07029716975621" lon="1.8088495819572994"><ele>725.0</ele><time>2026-03-30T08:04:29Z</time></trkpt><trkpt lat="42.07013616927392" lon="1.8086917898696486"><ele>725.0</ele><time>2026-03-30T08:04:30Z</time></trkpt><trkpt lat="42.06997347464688" lon="1.8085362704631804"><ele>726.3333333333333</ele><time>2026-03-30T08:04:31Z</time></trkpt><trkpt lat="42.06981438718956" lon="1.808382355486146"><ele>727.6666666666666</ele><time>2026-03-30T08:04:32Z</time></trkpt><trkpt lat="42.069658749214824" lon="1.8082292555036148"><ele>729.0</ele><time>2026-03-30T08:04:33Z</time></trkpt><trkpt lat="42.06952415790467" lon="1.8080586552441953"><ele>729.0</ele><time>2026-03-30T08:04:34Z</time></trkpt><trkpt lat="42.06940181198948" lon="1.8078934938367381"><ele>729.0</ele><time>2026-03-30T08:04:35Z</time></trkpt><trkpt lat="42.06930384046357" lon="1.807722844355759"><ele>729.0</ele><time>2026-03-30T08:04:36Z</time></trkpt><trkpt lat="42.06922338171596" lon="1.807550072084586"><ele>729.3333333333334</ele><time>2026-03-30T08:04:37Z</time></trkpt><trkpt lat="42.069147321931645" lon="1.8073806297247847"><ele>729.6666666666667</ele><time>2026-03-30T08:04:38Z</time></trkpt><trkpt lat="42.06912131799758" lon="1.8071683885083134"><ele>730.0</ele><time>2026-03-30T08:04:39Z</time></trkpt><trkpt lat="42.06907758251235" lon="1.8069456278200247"><ele>728.3333333333334</ele><time>2026-03-30T08:04:40Z</time></trkpt><trkpt lat="42.06903639420312" lon="1.8067164753558562"><ele>726.6666666666666</ele><time>2026-03-30T08:04:41Z</time></trkpt><trkpt lat="42.068979907079374" lon="1.8064962363118235"><ele>725.0</ele><time>2026-03-30T08:04:42Z</time></trkpt><trkpt lat="42.06894271704727" lon="1.8062754069014157"><ele>725.0</ele><time>2026-03-30T08:04:43Z</time></trkpt><trkpt lat="42.06890827372204" lon="1.8060702305585803"><ele>725.0</ele><time>2026-03-30T08:04:44Z</time></trkpt><trkpt lat="42.068872232776464" lon="1.8058679615973574"><ele>725.0</ele><time>2026-03-30T08:04:45Z</time></trkpt><trkpt lat="42.06883654881966" lon="1.805663955728063"><ele>724.3333333333333</ele><time>2026-03-30T08:04:46Z</time></trkpt><trkpt lat="42.068815232509955" lon="1.805447583291553"><ele>723.6666666666666</ele><time>2026-03-30T08:04:47Z</time></trkpt><trkpt lat="42.068848611402984" lon="1.8052308509200625"><ele>723.0</ele><time>2026-03-30T08:04:48Z</time></trkpt><trkpt lat="42.068895408807826" lon="1.8050259838534224"><ele>722.25</ele><time>2026-03-30T08:04:49Z</time></trkpt><trkpt lat="42.06896788965133" lon="1.8048568523360409"><ele>721.5</ele><time>2026-03-30T08:04:50Z</time></trkpt><trkpt lat="42.06904453430985" lon="1.8046966091407812"><ele>720.75</ele><time>2026-03-30T08:04:51Z</time></trkpt><trkpt lat="42.06912317363819" lon="1.8045540302148846"><ele>720.0</ele><time>2026-03-30T08:04:52Z</time></trkpt><trkpt lat="42.06918442234843" lon="1.8044080318132258"><ele>719.75</ele><time>2026-03-30T08:04:53Z</time></trkpt><trkpt lat="42.06922797883912" lon="1.8042503717010758"><ele>719.5</ele><time>2026-03-30T08:04:54Z</time></trkpt><trkpt lat="42.06922184215983" lon="1.8040681061948551"><ele>719.25</ele><time>2026-03-30T08:04:55Z</time></trkpt><trkpt lat="42.06915300150671" lon="1.8038941983089074"><ele>719.0</ele><time>2026-03-30T08:04:56Z</time></trkpt><trkpt lat="42.06902741121266" lon="1.8037746214753076"><ele>719.0</ele><time>2026-03-30T08:04:57Z</time></trkpt><trkpt lat="42.068873421475395" lon="1.8037139537845783"><ele>719.0</ele><time>2026-03-30T08:04:58Z</time></trkpt><trkpt lat="42.068714090192444" lon="1.8036682681932097"><ele>719.0</ele><time>2026-03-30T08:04:59Z</time></trkpt><trkpt lat="42.06856602232093" lon="1.8035732448706252"><ele>718.0</ele><time>2026-03-30T08:05:00Z</time></trkpt><trkpt lat="42.06842438488771" lon="1.8034695748999334"><ele>717.0</ele><time>2026-03-30T08:05:01Z</time></trkpt><trkpt lat="42.068302683865944" lon="1.8033210907450177"><ele>716.0</ele><time>2026-03-30T08:05:02Z</time></trkpt><trkpt lat="42.0681856453451" lon="1.8031481478296967"><ele>715.0</ele><time>2026-03-30T08:05:03Z</time></trkpt><trkpt lat="42.068059150727656" lon="1.8029696930493413"><ele>714.0</ele><time>2026-03-30T08:05:04Z</time></trkpt><trkpt lat="42.06791959925127" lon="1.8027880398103466"><ele>713.0</ele><time>2026-03-30T08:05:05Z</time></trkpt><trkpt lat="42.067770519617795" lon="1.8026490885143394"><ele>713.0</ele><time>2026-03-30T08:05:06Z</time></trkpt><trkpt lat="42.06761594592703" lon="1.8025065022470816"><ele>713.0</ele><time>2026-03-30T08:05:07Z</time></trkpt><trkpt lat="42.067473701489796" lon="1.8023414551712056"><ele>713.0</ele><time>2026-03-30T08:05:08Z</time></trkpt><trkpt lat="42.06730909381117" lon="1.8022070328968853"><ele>712.0</ele><time>2026-03-30T08:05:09Z</time></trkpt><trkpt lat="42.067155850935094" lon="1.8020535857625177"><ele>711.0</ele><time>2026-03-30T08:05:10Z</time></trkpt><trkpt lat="42.06701219223396" lon="1.801909050572967"><ele>710.0</ele><time>2026-03-30T08:05:11Z</time></trkpt><trkpt lat="42.066874592769686" lon="1.8017734328215305"><ele>710.0</ele><time>2026-03-30T08:05:12Z</time></trkpt><trkpt lat="42.06675240305302" lon="1.801635528514162"><ele>710.0</ele><time>2026-03-30T08:05:13Z</time></trkpt><trkpt lat="42.066658861047735" lon="1.8014857085460552"><ele>710.0</ele><time>2026-03-30T08:05:14Z</time></trkpt><trkpt lat="42.06663095210238" lon="1.8012992832526087"><ele>710.0</ele><time>2026-03-30T08:05:15Z</time></trkpt><trkpt lat="42.06662176766201" lon="1.801096343284838"><ele>710.0</ele><time>2026-03-30T08:05:16Z</time></trkpt><trkpt lat="42.0666561817616" lon="1.8008747301806114"><ele>710.0</ele><time>2026-03-30T08:05:17Z</time></trkpt><trkpt lat="42.06667416579754" lon="1.8006755949330877"><ele>710.0</ele><time>2026-03-30T08:05:18Z</time></trkpt><trkpt lat="42.066688618325664" lon="1.8004840495408838"><ele>710.0</ele><time>2026-03-30T08:05:19Z</time></trkpt><trkpt lat="42.06670747477589" lon="1.8002970319085854"><ele>710.0</ele><time>2026-03-30T08:05:20Z</time></trkpt><trkpt lat="42.06672434387199" lon="1.8001045848103898"><ele>710.0</ele><time>2026-03-30T08:05:21Z</time></trkpt><trkpt lat="42.06673367879502" lon="1.7999234379107265"><ele>710.0</ele><time>2026-03-30T08:05:22Z</time></trkpt><trkpt lat="42.06670779689249" lon="1.7997346387578639"><ele>709.25</ele><time>2026-03-30T08:05:23Z</time></trkpt><trkpt lat="42.06662762697592" lon="1.799559494779681"><ele>708.5</ele><time>2026-03-30T08:05:24Z</time></trkpt><trkpt lat="42.0665252662035" lon="1.7994106882466454"><ele>707.75</ele><time>2026-03-30T08:05:25Z</time></trkpt><trkpt lat="42.06640633636167" lon="1.7993002678588186"><ele>707.0</ele><time>2026-03-30T08:05:26Z</time></trkpt><trkpt lat="42.0662936933084" lon="1.7992011883747303"><ele>704.5</ele><time>2026-03-30T08:05:27Z</time></trkpt><trkpt lat="42.06621771333573" lon="1.7990630947289545"><ele>702.0</ele><time>2026-03-30T08:05:28Z</time></trkpt><trkpt lat="42.066197706740326" lon="1.7988945355892634"><ele>699.5</ele><time>2026-03-30T08:05:29Z</time></trkpt><trkpt lat="42.06624435228765" lon="1.798732051072959"><ele>697.0</ele><time>2026-03-30T08:05:30Z</time></trkpt><trkpt lat="42.066333157534935" lon="1.7985895904289118"><ele>695.75</ele><time>2026-03-30T08:05:31Z</time></trkpt><trkpt lat="42.06642799040743" lon="1.7984603730374384"><ele>694.5</ele><time>2026-03-30T08:05:32Z</time></trkpt><trkpt lat="42.06650983621111" lon="1.7983272824625096"><ele>693.25</ele><time>2026-03-30T08:05:33Z</time></trkpt><trkpt lat="42.066565803348794" lon="1.7981909845721284"><ele>692.0</ele><time>2026-03-30T08:05:34Z</time></trkpt><trkpt lat="42.06657677961767" lon="1.7980402963973174"><ele>692.0</ele><time>2026-03-30T08:05:35Z</time></trkpt><trkpt lat="42.066544145719284" lon="1.79788162609713"><ele>692.0</ele><time>2026-03-30T08:05:36Z</time></trkpt><trkpt lat="42.06649634475174" lon="1.7977201845319293"><ele>692.0</ele><time>2026-03-30T08:05:37Z</time></trkpt><trkpt lat="42.066463653168704" lon="1.7975442459696516"><ele>692.0</ele><time>2026-03-30T08:05:38Z</time></trkpt><trkpt lat="42.066472875359565" lon="1.797355458098299"><ele>692.25</ele><time>2026-03-30T08:05:39Z</time></trkpt><trkpt lat="42.06654282731178" lon="1.7971751300240681"><ele>692.5</ele><time>2026-03-30T08:05:40Z</time></trkpt><trkpt lat="42.066636582851544" lon="1.7970283373608957"><ele>692.75</ele><time>2026-03-30T08:05:41Z</time></trkpt><trkpt lat="42.06672535402443" lon="1.7968998247483203"><ele>693.0</ele><time>2026-03-30T08:05:42Z</time></trkpt><trkpt lat="42.06680263878543" lon="1.7967668089798494"><ele>694.75</ele><time>2026-03-30T08:05:43Z</time></trkpt><trkpt lat="42.06686458516609" lon="1.7966290494659403"><ele>696.5</ele><time>2026-03-30T08:05:44Z</time></trkpt><trkpt lat="42.066893111642024" lon="1.796463865679404"><ele>698.25</ele><time>2026-03-30T08:05:45Z</time></trkpt><trkpt lat="42.066853025594384" lon="1.7962892550197658"><ele>700.0</ele><time>2026-03-30T08:05:46Z</time></trkpt><trkpt lat="42.06676272110234" lon="1.7961523052833295"><ele>700.0</ele><time>2026-03-30T08:05:47Z</time></trkpt><trkpt lat="42.066649368839535" lon="1.796038965414416"><ele>700.0</ele><time>2026-03-30T08:05:48Z</time></trkpt><trkpt lat="42.066540230731654" lon="1.795916935448281"><ele>700.0</ele><time>2026-03-30T08:05:49Z</time></trkpt><trkpt lat="42.066430076118436" lon="1.795778191833181"><ele>700.0</ele><time>2026-03-30T08:05:50Z</time></trkpt><trkpt lat="42.06627643647037" lon="1.7957049142473982"><ele>700.0</ele><time>2026-03-30T08:05:51Z</time></trkpt><trkpt lat="42.0660970048737" lon="1.7956622496683685"><ele>700.0</ele><time>2026-03-30T08:05:52Z</time></trkpt><trkpt lat="42.065911523076885" lon="1.7956153218824618"><ele>700.0</ele><time>2026-03-30T08:05:53Z</time></trkpt><trkpt lat="42.06572952023004" lon="1.7955349209386242"><ele>701.3333333333334</ele><time>2026-03-30T08:05:54Z</time></trkpt><trkpt lat="42.06554587048625" lon="1.7954773241283564"><ele>702.6666666666666</ele><time>2026-03-30T08:05:55Z</time></trkpt><trkpt lat="42.0653717985957" lon="1.7954259244002273"><ele>704.0</ele><time>2026-03-30T08:05:56Z</time></trkpt><trkpt lat="42.065197367491834" lon="1.7953871076879293"><ele>704.0</ele><time>2026-03-30T08:05:57Z</time></trkpt><trkpt lat="42.065030745824345" lon="1.7953175793916172"><ele>704.0</ele><time>2026-03-30T08:05:58Z</time></trkpt><trkpt lat="42.06486706729604" lon="1.7952389351915405"><ele>704.0</ele><time>2026-03-30T08:05:59Z</time></trkpt><trkpt lat="42.06470361903213" lon="1.7951492112463692"><ele>706.3333333333333</ele><time>2026-03-30T08:06:00Z</time></trkpt><trkpt lat="42.06454168543782" lon="1.7950546916870962"><ele>708.6666666666666</ele><time>2026-03-30T08:06:01Z</time></trkpt><trkpt lat="42.06438323732513" lon="1.7949655723741913"><ele>711.0</ele><time>2026-03-30T08:06:02Z</time></trkpt><trkpt lat="42.06422089702934" lon="1.7948863632732694"><ele>712.3333333333334</ele><time>2026-03-30T08:06:03Z</time></trkpt><trkpt lat="42.06405479429974" lon="1.7948304777219075"><ele>713.6666666666667</ele><time>2026-03-30T08:06:04Z</time></trkpt><trkpt lat="42.063882655775494" lon="1.794822883661855"><ele>715.0</ele><time>2026-03-30T08:06:05Z</time></trkpt><trkpt lat="42.06371187058946" lon="1.7948728543271777"><ele>715.0</ele><time>2026-03-30T08:06:06Z</time></trkpt><trkpt lat="42.06353407199418" lon="1.7949096762695282"><ele>715.0</ele><time>2026-03-30T08:06:07Z</time></trkpt><trkpt lat="42.06335327957042" lon="1.79495837610164"><ele>715.0</ele><time>2026-03-30T08:06:08Z</time></trkpt><trkpt lat="42.06318400783833" lon="1.7950226173905846"><ele>715.3333333333334</ele><time>2026-03-30T08:06:09Z</time></trkpt><trkpt lat="42.06301453573768" lon="1.7950553383991479"><ele>715.6666666666666</ele><time>2026-03-30T08:06:10Z</time></trkpt><trkpt lat="42.06285100500756" lon="1.7950550342565579"><ele>716.0</ele><time>2026-03-30T08:06:11Z</time></trkpt><trkpt lat="42.06268940635532" lon="1.7949781861784768"><ele>716.0</ele><time>2026-03-30T08:06:12Z</time></trkpt><trkpt lat="42.06252829394253" lon="1.7948766551739337"><ele>716.0</ele><time>2026-03-30T08:06:13Z</time></trkpt><trkpt lat="42.06236197020723" lon="1.7947850144471766"><ele>716.0</ele><time>2026-03-30T08:06:14Z</time></trkpt><trkpt lat="42.06219998698367" lon="1.7946750715237794"><ele>717.3333333333333</ele><time>2026-03-30T08:06:15Z</time></trkpt><trkpt lat="42.062039354769205" lon="1.7945644151289466"><ele>718.6666666666666</ele><time>2026-03-30T08:06:16Z</time></trkpt><trkpt lat="42.06188183453119" lon="1.7944528497881318"><ele>720.0</ele><time>2026-03-30T08:06:17Z</time></trkpt><trkpt lat="42.06173248010124" lon="1.7943633334815197"><ele>724.6666666666666</ele><time>2026-03-30T08:06:18Z</time></trkpt><trkpt lat="42.06158453961878" lon="1.7942992228731685"><ele>729.3333333333333</ele><time>2026-03-30T08:06:19Z</time></trkpt><trkpt lat="42.061428017753926" lon="1.7942632758755814"><ele>734.0</ele><time>2026-03-30T08:06:20Z</time></trkpt><trkpt lat="42.06125955439786" lon="1.794244318291902"><ele>734.0</ele><time>2026-03-30T08:06:21Z</time></trkpt><trkpt lat="42.061075184429555" lon="1.794219346559346"><ele>734.0</ele><time>2026-03-30T08:06:22Z</time></trkpt><trkpt lat="42.06089629794959" lon="1.7941857310015068"><ele>734.0</ele><time>2026-03-30T08:06:23Z</time></trkpt><trkpt lat="42.0607223009737" lon="1.7941498441407653"><ele>734.0</ele><time>2026-03-30T08:06:24Z</time></trkpt><trkpt lat="42.06054605927296" lon="1.7941160671614524"><ele>734.0</ele><time>2026-03-30T08:06:25Z</time></trkpt><trkpt lat="42.06037027415089" lon="1.7940835056927913"><ele>734.0</ele><time>2026-03-30T08:06:26Z</time></trkpt><trkpt lat="42.060193719525294" lon="1.7940455786160152"><ele>734.0</ele><time>2026-03-30T08:06:27Z</time></trkpt><trkpt lat="42.06001311043586" lon="1.7940060226112349"><ele>734.0</ele><time>2026-03-30T08:06:28Z</time></trkpt><trkpt lat="42.05983322013593" lon="1.7939736304552212"><ele>734.0</ele><time>2026-03-30T08:06:29Z</time></trkpt><trkpt lat="42.059668743520234" lon="1.793946746206422"><ele>733.3333333333333</ele><time>2026-03-30T08:06:30Z</time></trkpt><trkpt lat="42.05951833284788" lon="1.793868775592356"><ele>732.6666666666666</ele><time>2026-03-30T08:06:31Z</time></trkpt><trkpt lat="42.059390498502495" lon="1.7937759605081336"><ele>732.0</ele><time>2026-03-30T08:06:32Z</time></trkpt><trkpt lat="42.05932929162854" lon="1.793588531477425"><ele>732.6666666666666</ele><time>2026-03-30T08:06:33Z</time></trkpt><trkpt lat="42.05923947468718" lon="1.7934021413909689"><ele>733.3333333333333</ele><time>2026-03-30T08:06:34Z</time></trkpt><trkpt lat="42.05916201870566" lon="1.7932048152642504"><ele>734.0</ele><time>2026-03-30T08:06:35Z</time></trkpt><trkpt lat="42.0590831738799" lon="1.7930044301813044"><ele>734.0</ele><time>2026-03-30T08:06:36Z</time></trkpt><trkpt lat="42.059002270371984" lon="1.7928007576905207"><ele>734.0</ele><time>2026-03-30T08:06:37Z</time></trkpt><trkpt lat="42.058911479897915" lon="1.7925782734138027"><ele>734.0</ele><time>2026-03-30T08:06:38Z</time></trkpt><trkpt lat="42.058824116553964" lon="1.7923631669998341"><ele>736.3333333333333</ele><time>2026-03-30T08:06:39Z</time></trkpt><trkpt lat="42.058739512430556" lon="1.7921515274570867"><ele>738.6666666666666</ele><time>2026-03-30T08:06:40Z</time></trkpt><trkpt lat="42.05865838290316" lon="1.791950012549518"><ele>741.0</ele><time>2026-03-30T08:06:41Z</time></trkpt><trkpt lat="42.05858258674378" lon="1.7917457938473027"><ele>743.0</ele><time>2026-03-30T08:06:42Z</time></trkpt><trkpt lat="42.05852378278877" lon="1.7915325462227405"><ele>745.0</ele><time>2026-03-30T08:06:43Z</time></trkpt><trkpt lat="42.058481145917895" lon="1.7913072940781087"><ele>747.0</ele><time>2026-03-30T08:06:44Z</time></trkpt><trkpt lat="42.058452266950695" lon="1.7910795491654885"><ele>749.6666666666666</ele><time>2026-03-30T08:06:45Z</time></trkpt><trkpt lat="42.05842489170748" lon="1.7908543088499647"><ele>752.3333333333333</ele><time>2026-03-30T08:06:46Z</time></trkpt><trkpt lat="42.05839493329251" lon="1.7906428150265619"><ele>755.0</ele><time>2026-03-30T08:06:47Z</time></trkpt><trkpt lat="42.058354974644516" lon="1.7904603629094518"><ele>755.0</ele><time>2026-03-30T08:06:48Z</time></trkpt><trkpt lat="42.05828521917713" lon="1.7903111171670807"><ele>755.0</ele><time>2026-03-30T08:06:49Z</time></trkpt><trkpt lat="42.05817874294838" lon="1.790207417032341"><ele>755.0</ele><time>2026-03-30T08:06:50Z</time></trkpt><trkpt lat="42.058045166479836" lon="1.7901439098108944"><ele>755.0</ele><time>2026-03-30T08:06:51Z</time></trkpt><trkpt lat="42.05788934275935" lon="1.7901554785089815"><ele>755.0</ele><time>2026-03-30T08:06:52Z</time></trkpt><trkpt lat="42.05771960919306" lon="1.7902368290846848"><ele>755.0</ele><time>2026-03-30T08:06:53Z</time></trkpt><trkpt lat="42.05756461064128" lon="1.7903020208938512"><ele>755.0</ele><time>2026-03-30T08:06:54Z</time></trkpt><trkpt lat="42.057401637565356" lon="1.790357371168034"><ele>755.0</ele><time>2026-03-30T08:06:55Z</time></trkpt><trkpt lat="42.05723565993513" lon="1.7904045245038047"><ele>755.0</ele><time>2026-03-30T08:06:56Z</time></trkpt><trkpt lat="42.05706555137234" lon="1.7904270165219491"><ele>755.0</ele><time>2026-03-30T08:06:57Z</time></trkpt><trkpt lat="42.05691429311703" lon="1.79037333505022"><ele>755.0</ele><time>2026-03-30T08:06:58Z</time></trkpt><trkpt lat="42.05677374692321" lon="1.7902844731803844"><ele>755.0</ele><time>2026-03-30T08:06:59Z</time></trkpt><trkpt lat="42.0566295891889" lon="1.7901668373516124"><ele>755.0</ele><time>2026-03-30T08:07:00Z</time></trkpt><trkpt lat="42.056471864153885" lon="1.7900573525308885"><ele>757.0</ele><time>2026-03-30T08:07:01Z</time></trkpt><trkpt lat="42.056310934384285" lon="1.7899301681593494"><ele>759.0</ele><time>2026-03-30T08:07:02Z</time></trkpt><trkpt lat="42.056155898085066" lon="1.7898035285301406"><ele>761.0</ele><time>2026-03-30T08:07:03Z</time></trkpt><trkpt lat="42.055998554424775" lon="1.789673482333568"><ele>761.0</ele><time>2026-03-30T08:07:04Z</time></trkpt><trkpt lat="42.05585047600219" lon="1.7895529027591068"><ele>761.0</ele><time>2026-03-30T08:07:05Z</time></trkpt><trkpt lat="42.055696661991405" lon="1.7894288241286156"><ele>761.0</ele><time>2026-03-30T08:07:06Z</time></trkpt><trkpt lat="42.05554841882667" lon="1.7893055029612106"><ele>764.3333333333333</ele><time>2026-03-30T08:07:07Z</time></trkpt><trkpt lat="42.05541121526259" lon="1.7891899794088273"><ele>767.6666666666666</ele><time>2026-03-30T08:07:08Z</time></trkpt><trkpt lat="42.05528941693271" lon="1.7890602977757084"><ele>771.0</ele><time>2026-03-30T08:07:09Z</time></trkpt><trkpt lat="42.05517843982109" lon="1.7889194046252777"><ele>771.0</ele><time>2026-03-30T08:07:10Z</time></trkpt><trkpt lat="42.05509452474115" lon="1.7887302639045952"><ele>771.0</ele><time>2026-03-30T08:07:11Z</time></trkpt><trkpt lat="42.05503674267922" lon="1.7885131717948641"><ele>771.0</ele><time>2026-03-30T08:07:12Z</time></trkpt><trkpt lat="42.054967930694716" lon="1.788292142394575"><ele>771.3333333333333</ele><time>2026-03-30T08:07:13Z</time></trkpt><trkpt lat="42.05491006515416" lon="1.7880537739009168"><ele>771.6666666666666</ele><time>2026-03-30T08:07:14Z</time></trkpt><trkpt lat="42.05484832216589" lon="1.7878145303517476"><ele>772.0</ele><time>2026-03-30T08:07:15Z</time></trkpt><trkpt lat="42.05478681805488" lon="1.787572754313425"><ele>772.0</ele><time>2026-03-30T08:07:16Z</time></trkpt><trkpt lat="42.05472561023035" lon="1.787329794259623"><ele>772.0</ele><time>2026-03-30T08:07:17Z</time></trkpt><trkpt lat="42.05466607144454" lon="1.7870919907615046"><ele>772.0</ele><time>2026-03-30T08:07:18Z</time></trkpt><trkpt lat="42.0546071998204" lon="1.78685968019148"><ele>772.6666666666666</ele><time>2026-03-30T08:07:19Z</time></trkpt><trkpt lat="42.054549038766275" lon="1.7866351857129306"><ele>773.3333333333333</ele><time>2026-03-30T08:07:20Z</time></trkpt><trkpt lat="42.05449348129382" lon="1.7864131754342716"><ele>774.0</ele><time>2026-03-30T08:07:21Z</time></trkpt><trkpt lat="42.05443958543191" lon="1.7862012437224164"><ele>774.3333333333333</ele><time>2026-03-30T08:07:22Z</time></trkpt><trkpt lat="42.05439516476952" lon="1.7860082568045244"><ele>774.6666666666666</ele><time>2026-03-30T08:07:23Z</time></trkpt><trkpt lat="42.05438406922989" lon="1.7858101176670758"><ele>775.0</ele><time>2026-03-30T08:07:24Z</time></trkpt><trkpt lat="42.054413295080614" lon="1.7855908729729448"><ele>775.0</ele><time>2026-03-30T08:07:25Z</time></trkpt><trkpt lat="42.05448526253933" lon="1.785386671274387"><ele>775.0</ele><time>2026-03-30T08:07:26Z</time></trkpt><trkpt lat="42.05456467113461" lon="1.785187198864745"><ele>775.0</ele><time>2026-03-30T08:07:27Z</time></trkpt><trkpt lat="42.054647377860725" lon="1.784951165031779"><ele>774.0</ele><time>2026-03-30T08:07:28Z</time></trkpt><trkpt lat="42.054727359644346" lon="1.7847373340058788"><ele>773.0</ele><time>2026-03-30T08:07:29Z</time></trkpt><trkpt lat="42.054787543703284" lon="1.784502801781465"><ele>772.0</ele><time>2026-03-30T08:07:30Z</time></trkpt><trkpt lat="42.0548082906072" lon="1.7842316244078105"><ele>769.6666666666666</ele><time>2026-03-30T08:07:31Z</time></trkpt><trkpt lat="42.05480020396292" lon="1.783961433421889"><ele>767.3333333333333</ele><time>2026-03-30T08:07:32Z</time></trkpt><trkpt lat="42.05479104197478" lon="1.7837003637751374"><ele>765.0</ele><time>2026-03-30T08:07:33Z</time></trkpt><trkpt lat="42.054780743029696" lon="1.7834607423630975"><ele>764.6666666666666</ele><time>2026-03-30T08:07:34Z</time></trkpt><trkpt lat="42.05475228999147" lon="1.78324435870811"><ele>764.3333333333333</ele><time>2026-03-30T08:07:35Z</time></trkpt><trkpt lat="42.05469526151123" lon="1.783047865966856"><ele>764.0</ele><time>2026-03-30T08:07:36Z</time></trkpt><trkpt lat="42.05460355809006" lon="1.7828482033708417"><ele>766.0</ele><time>2026-03-30T08:07:37Z</time></trkpt><trkpt lat="42.05451154625661" lon="1.782611812672426"><ele>768.0</ele><time>2026-03-30T08:07:38Z</time></trkpt><trkpt lat="42.054405004926906" lon="1.7823736627653697"><ele>770.0</ele><time>2026-03-30T08:07:39Z</time></trkpt><trkpt lat="42.05429109795255" lon="1.7821610779460308"><ele>770.0</ele><time>2026-03-30T08:07:40Z</time></trkpt><trkpt lat="42.05419556626135" lon="1.7819315771699689"><ele>770.0</ele><time>2026-03-30T08:07:41Z</time></trkpt><trkpt lat="42.05409788672662" lon="1.7817091793297217"><ele>770.0</ele><time>2026-03-30T08:07:42Z</time></trkpt><trkpt lat="42.054002087590376" lon="1.7814987605514978"><ele>770.3333333333334</ele><time>2026-03-30T08:07:43Z</time></trkpt><trkpt lat="42.053906812783374" lon="1.7812853191055285"><ele>770.6666666666667</ele><time>2026-03-30T08:07:44Z</time></trkpt><trkpt lat="42.053811971514946" lon="1.7810746008616414"><ele>771.0</ele><time>2026-03-30T08:07:45Z</time></trkpt><trkpt lat="42.05372015308394" lon="1.7808645808314927"><ele>772.3333333333333</ele><time>2026-03-30T08:07:46Z</time></trkpt><trkpt lat="42.05363285198497" lon="1.780651245541882"><ele>773.6666666666666</ele><time>2026-03-30T08:07:47Z</time></trkpt><trkpt lat="42.053552876394804" lon="1.7804245177455367"><ele>775.0</ele><time>2026-03-30T08:07:48Z</time></trkpt><trkpt lat="42.05351567201167" lon="1.7801718420672066"><ele>775.0</ele><time>2026-03-30T08:07:49Z</time></trkpt><trkpt lat="42.05346323523618" lon="1.7799187668517085"><ele>775.0</ele><time>2026-03-30T08:07:50Z</time></trkpt><trkpt lat="42.05342821569544" lon="1.7796790503548128"><ele>775.0</ele><time>2026-03-30T08:07:51Z</time></trkpt><trkpt lat="42.05339493711902" lon="1.779461730951035"><ele>777.3333333333333</ele><time>2026-03-30T08:07:52Z</time></trkpt><trkpt lat="42.05336838739525" lon="1.7792446824131405"><ele>779.6666666666667</ele><time>2026-03-30T08:07:53Z</time></trkpt><trkpt lat="42.05335777580433" lon="1.779026914544275"><ele>782.0</ele><time>2026-03-30T08:07:54Z</time></trkpt><trkpt lat="42.05338903115996" lon="1.7788095853756838"><ele>782.0</ele><time>2026-03-30T08:07:55Z</time></trkpt><trkpt lat="42.05346455705368" lon="1.778609574830214"><ele>782.0</ele><time>2026-03-30T08:07:56Z</time></trkpt><trkpt lat="42.053559108475866" lon="1.7784143544744901"><ele>782.0</ele><time>2026-03-30T08:07:57Z</time></trkpt><trkpt lat="42.05364463765119" lon="1.7782028115536412"><ele>782.0</ele><time>2026-03-30T08:07:58Z</time></trkpt><trkpt lat="42.05372974789968" lon="1.7779893517925927"><ele>782.0</ele><time>2026-03-30T08:07:59Z</time></trkpt><trkpt lat="42.05381499448509" lon="1.7777807103680607"><ele>782.0</ele><time>2026-03-30T08:08:00Z</time></trkpt><trkpt lat="42.05390016936265" lon="1.777573426440709"><ele>780.3333333333334</ele><time>2026-03-30T08:08:01Z</time></trkpt><trkpt lat="42.05398502599986" lon="1.7773635128038665"><ele>778.6666666666667</ele><time>2026-03-30T08:08:02Z</time></trkpt><trkpt lat="42.05406878716174" lon="1.7771552242657775"><ele>777.0</ele><time>2026-03-30T08:08:03Z</time></trkpt><trkpt lat="42.05414825091918" lon="1.7769551064710045"><ele>779.5</ele><time>2026-03-30T08:08:04Z</time></trkpt><trkpt lat="42.05422542024579" lon="1.776767115028543"><ele>782.0</ele><time>2026-03-30T08:08:05Z</time></trkpt><trkpt lat="42.054296172470366" lon="1.7765889658120655"><ele>784.5</ele><time>2026-03-30T08:08:06Z</time></trkpt><trkpt lat="42.05433674496472" lon="1.7764109861314885"><ele>787.0</ele><time>2026-03-30T08:08:07Z</time></trkpt><trkpt lat="42.05433261153974" lon="1.7762046008333363"><ele>786.6666666666666</ele><time>2026-03-30T08:08:08Z</time></trkpt><trkpt lat="42.05427011392173" lon="1.776004552087068"><ele>786.3333333333333</ele><time>2026-03-30T08:08:09Z</time></trkpt><trkpt lat="42.05418210039941" lon="1.775831845739297"><ele>786.0</ele><time>2026-03-30T08:08:10Z</time></trkpt><trkpt lat="42.05409159217059" lon="1.7756526681705878"><ele>786.0</ele><time>2026-03-30T08:08:11Z</time></trkpt><trkpt lat="42.054000874718646" lon="1.775467481708629"><ele>786.0</ele><time>2026-03-30T08:08:12Z</time></trkpt><trkpt lat="42.05391075568629" lon="1.7752808474664858"><ele>786.0</ele><time>2026-03-30T08:08:13Z</time></trkpt><trkpt lat="42.0538188368816" lon="1.7750893432909205"><ele>787.3333333333333</ele><time>2026-03-30T08:08:14Z</time></trkpt><trkpt lat="42.05372117196079" lon="1.7749049467445082"><ele>788.6666666666666</ele><time>2026-03-30T08:08:15Z</time></trkpt><trkpt lat="42.05360887713676" lon="1.7747338914604138"><ele>790.0</ele><time>2026-03-30T08:08:16Z</time></trkpt><trkpt lat="42.053480119386045" lon="1.7745926595189883"><ele>790.0</ele><time>2026-03-30T08:08:17Z</time></trkpt><trkpt lat="42.05334471300373" lon="1.7744766773141993"><ele>790.0</ele><time>2026-03-30T08:08:18Z</time></trkpt><trkpt lat="42.05321642058366" lon="1.7743744370606453"><ele>790.0</ele><time>2026-03-30T08:08:19Z</time></trkpt><trkpt lat="42.05309488320811" lon="1.7742782901770933"><ele>792.0</ele><time>2026-03-30T08:08:20Z</time></trkpt><trkpt lat="42.05297410756548" lon="1.7741824639913464"><ele>794.0</ele><time>2026-03-30T08:08:21Z</time></trkpt><trkpt lat="42.05285796591864" lon="1.774088312649007"><ele>796.0</ele><time>2026-03-30T08:08:22Z</time></trkpt><trkpt lat="42.05274220333095" lon="1.7739829360977268"><ele>798.0</ele><time>2026-03-30T08:08:23Z</time></trkpt><trkpt lat="42.0526283441778" lon="1.7738657041184596"><ele>798.0</ele><time>2026-03-30T08:08:24Z</time></trkpt><trkpt lat="42.05252746491565" lon="1.7737360796491701"><ele>798.0</ele><time>2026-03-30T08:08:25Z</time></trkpt><trkpt lat="42.05245335036042" lon="1.7735880609785104"><ele>798.0</ele><time>2026-03-30T08:08:26Z</time></trkpt><trkpt lat="42.052424814129154" lon="1.7734169610598705"><ele>798.0</ele><time>2026-03-30T08:08:27Z</time></trkpt><trkpt lat="42.05243343210087" lon="1.773236681035901"><ele>798.5</ele><time>2026-03-30T08:08:28Z</time></trkpt><trkpt lat="42.052484720667785" lon="1.7730637025947746"><ele>799.0</ele><time>2026-03-30T08:08:29Z</time></trkpt><trkpt lat="42.05257352998921" lon="1.7729155670730137"><ele>799.5</ele><time>2026-03-30T08:08:30Z</time></trkpt><trkpt lat="42.05268453464001" lon="1.772792185861315"><ele>800.0</ele><time>2026-03-30T08:08:31Z</time></trkpt><trkpt lat="42.05279817162836" lon="1.7726659465212546"><ele>800.0</ele><time>2026-03-30T08:08:32Z</time></trkpt><trkpt lat="42.05290934075189" lon="1.7725388075814064"><ele>800.0</ele><time>2026-03-30T08:08:33Z</time></trkpt><trkpt lat="42.053023915000516" lon="1.7724202074287663"><ele>800.0</ele><time>2026-03-30T08:08:34Z</time></trkpt><trkpt lat="42.05314176705522" lon="1.7723063900958163"><ele>800.0</ele><time>2026-03-30T08:08:35Z</time></trkpt><trkpt lat="42.05325700411376" lon="1.7721904352417317"><ele>800.5</ele><time>2026-03-30T08:08:36Z</time></trkpt><trkpt lat="42.053371480678564" lon="1.7720695642321622"><ele>801.0</ele><time>2026-03-30T08:08:37Z</time></trkpt><trkpt lat="42.053489865605506" lon="1.7719519326137756"><ele>801.5</ele><time>2026-03-30T08:08:38Z</time></trkpt><trkpt lat="42.053611384837374" lon="1.7718393790390994"><ele>802.0</ele><time>2026-03-30T08:08:39Z</time></trkpt><trkpt lat="42.05373175010746" lon="1.771722979097969"><ele>802.0</ele><time>2026-03-30T08:08:40Z</time></trkpt><trkpt lat="42.05385105002223" lon="1.771598595020487"><ele>802.0</ele><time>2026-03-30T08:08:41Z</time></trkpt><trkpt lat="42.0539713086943" lon="1.7714738155893552"><ele>802.0</ele><time>2026-03-30T08:08:42Z</time></trkpt><trkpt lat="42.054084751157895" lon="1.7713562737699795"><ele>802.0</ele><time>2026-03-30T08:08:43Z</time></trkpt><trkpt lat="42.05418531459585" lon="1.7712504765725838"><ele>802.75</ele><time>2026-03-30T08:08:44Z</time></trkpt><trkpt lat="42.05427892285826" lon="1.7711280715470574"><ele>803.5</ele><time>2026-03-30T08:08:45Z</time></trkpt><trkpt lat="42.054345570089076" lon="1.770972830618257"><ele>804.25</ele><time>2026-03-30T08:08:46Z</time></trkpt><trkpt lat="42.05436779010717" lon="1.77079271397021"><ele>805.0</ele><time>2026-03-30T08:08:47Z</time></trkpt><trkpt lat="42.05434764174283" lon="1.7706015904341403"><ele>805.0</ele><time>2026-03-30T08:08:48Z</time></trkpt><trkpt lat="42.05429824837074" lon="1.7704004542896894"><ele>805.0</ele><time>2026-03-30T08:08:49Z</time></trkpt><trkpt lat="42.05423961455753" lon="1.770185768903408"><ele>805.0</ele><time>2026-03-30T08:08:50Z</time></trkpt><trkpt lat="42.054191026460984" lon="1.7699743556328742"><ele>804.6666666666666</ele><time>2026-03-30T08:08:51Z</time></trkpt><trkpt lat="42.05414223353185" lon="1.7697723548282918"><ele>804.3333333333333</ele><time>2026-03-30T08:08:52Z</time></trkpt><trkpt lat="42.054087284761124" lon="1.7695718596213872"><ele>804.0</ele><time>2026-03-30T08:08:53Z</time></trkpt><trkpt lat="42.05402781771292" lon="1.769378323442987"><ele>806.3333333333333</ele><time>2026-03-30T08:08:54Z</time></trkpt><trkpt lat="42.053950171912284" lon="1.769183662673036"><ele>808.6666666666666</ele><time>2026-03-30T08:08:55Z</time></trkpt><trkpt lat="42.05385372012153" lon="1.7690003669511851"><ele>811.0</ele><time>2026-03-30T08:08:56Z</time></trkpt><trkpt lat="42.053752348396664" lon="1.7688177677042687"><ele>811.0</ele><time>2026-03-30T08:08:57Z</time></trkpt><trkpt lat="42.05365676425208" lon="1.7686349938603665"><ele>811.0</ele><time>2026-03-30T08:08:58Z</time></trkpt><trkpt lat="42.0535674537444" lon="1.7684582248129068"><ele>811.0</ele><time>2026-03-30T08:08:59Z</time></trkpt><trkpt lat="42.05348083752219" lon="1.7682814471092538"><ele>813.0</ele><time>2026-03-30T08:09:00Z</time></trkpt><trkpt lat="42.053414291620506" lon="1.7680962394332431"><ele>815.0</ele><time>2026-03-30T08:09:01Z</time></trkpt><trkpt lat="42.05338010084785" lon="1.7678935649262135"><ele>817.0</ele><time>2026-03-30T08:09:02Z</time></trkpt><trkpt lat="42.05337941440326" lon="1.7676621909066996"><ele>817.6666666666666</ele><time>2026-03-30T08:09:03Z</time></trkpt><trkpt lat="42.053392716063165" lon="1.7674219470284687"><ele>818.3333333333333</ele><time>2026-03-30T08:09:04Z</time></trkpt><trkpt lat="42.053405744478916" lon="1.7671760822300806"><ele>819.0</ele><time>2026-03-30T08:09:05Z</time></trkpt><trkpt lat="42.0534179083753" lon="1.7669356853655762"><ele>818.6666666666667</ele><time>2026-03-30T08:09:06Z</time></trkpt><trkpt lat="42.05343230550197" lon="1.766696959532585"><ele>818.3333333333334</ele><time>2026-03-30T08:09:07Z</time></trkpt><trkpt lat="42.053445643906436" lon="1.7664656189709798"><ele>818.0</ele><time>2026-03-30T08:09:08Z</time></trkpt><trkpt lat="42.053452386248864" lon="1.7662335463058465"><ele>819.0</ele><time>2026-03-30T08:09:09Z</time></trkpt><trkpt lat="42.05346256500421" lon="1.7659954279676013"><ele>820.0</ele><time>2026-03-30T08:09:10Z</time></trkpt><trkpt lat="42.053480855400856" lon="1.765741641676236"><ele>821.0</ele><time>2026-03-30T08:09:11Z</time></trkpt><trkpt lat="42.053492337699424" lon="1.7654902057470934"><ele>821.0</ele><time>2026-03-30T08:09:12Z</time></trkpt><trkpt lat="42.053504879426114" lon="1.7652352626292864"><ele>821.0</ele><time>2026-03-30T08:09:13Z</time></trkpt><trkpt lat="42.05351926066583" lon="1.7649814409027813"><ele>821.0</ele><time>2026-03-30T08:09:14Z</time></trkpt><trkpt lat="42.0535310743416" lon="1.7647258730099324"><ele>823.0</ele><time>2026-03-30T08:09:15Z</time></trkpt><trkpt lat="42.05354081256798" lon="1.7644703146238923"><ele>825.0</ele><time>2026-03-30T08:09:16Z</time></trkpt><trkpt lat="42.053553819033894" lon="1.764214030302304"><ele>827.0</ele><time>2026-03-30T08:09:17Z</time></trkpt><trkpt lat="42.05357026645105" lon="1.7639652290260983"><ele>828.6666666666667</ele><time>2026-03-30T08:09:18Z</time></trkpt><trkpt lat="42.053583779691664" lon="1.7637373134660952"><ele>830.3333333333333</ele><time>2026-03-30T08:09:19Z</time></trkpt><trkpt lat="42.05360400714362" lon="1.7635151873621127"><ele>832.0</ele><time>2026-03-30T08:09:20Z</time></trkpt><trkpt lat="42.053637520651705" lon="1.7632928053320505"><ele>833.3333333333333</ele><time>2026-03-30T08:09:21Z</time></trkpt><trkpt lat="42.05368279415974" lon="1.763067310241035"><ele>834.6666666666667</ele><time>2026-03-30T08:09:22Z</time></trkpt><trkpt lat="42.05372479023717" lon="1.7628373146462921"><ele>836.0</ele><time>2026-03-30T08:09:23Z</time></trkpt><trkpt lat="42.053766501622434" lon="1.762595959079482"><ele>837.3333333333334</ele><time>2026-03-30T08:09:24Z</time></trkpt><trkpt lat="42.05380797008909" lon="1.7623622608661516"><ele>838.6666666666667</ele><time>2026-03-30T08:09:25Z</time></trkpt><trkpt lat="42.05384534217831" lon="1.7621315506180102"><ele>840.0</ele><time>2026-03-30T08:09:26Z</time></trkpt><trkpt lat="42.053886017079826" lon="1.7619024886915537"><ele>840.6666666666667</ele><time>2026-03-30T08:09:27Z</time></trkpt><trkpt lat="42.053928591981155" lon="1.7616670854231464"><ele>841.3333333333334</ele><time>2026-03-30T08:09:28Z</time></trkpt><trkpt lat="42.05396728340389" lon="1.761438386024183"><ele>842.0</ele><time>2026-03-30T08:09:29Z</time></trkpt><trkpt lat="42.054008720456494" lon="1.7612028361139316"><ele>843.3333333333334</ele><time>2026-03-30T08:09:30Z</time></trkpt><trkpt lat="42.05405418061631" lon="1.7609708356632219"><ele>844.6666666666667</ele><time>2026-03-30T08:09:31Z</time></trkpt><trkpt lat="42.0541091013409" lon="1.7607178093911635"><ele>846.0</ele><time>2026-03-30T08:09:32Z</time></trkpt><trkpt lat="42.05416735067852" lon="1.760471481677299"><ele>846.0</ele><time>2026-03-30T08:09:33Z</time></trkpt><trkpt lat="42.05422727932283" lon="1.7602233720149387"><ele>846.0</ele><time>2026-03-30T08:09:34Z</time></trkpt><trkpt lat="42.05428695671653" lon="1.7599783642390974"><ele>846.0</ele><time>2026-03-30T08:09:35Z</time></trkpt><trkpt lat="42.05434559098803" lon="1.7597337194615492"><ele>847.3333333333333</ele><time>2026-03-30T08:09:36Z</time></trkpt><trkpt lat="42.0544057773353" lon="1.7594910036230407"><ele>848.6666666666666</ele><time>2026-03-30T08:09:37Z</time></trkpt><trkpt lat="42.05446414299375" lon="1.7592538542773266"><ele>850.0</ele><time>2026-03-30T08:09:38Z</time></trkpt><trkpt lat="42.05452096972481" lon="1.7590216477894147"><ele>851.6666666666666</ele><time>2026-03-30T08:09:39Z</time></trkpt><trkpt lat="42.054575126656225" lon="1.758795827637557"><ele>853.3333333333333</ele><time>2026-03-30T08:09:40Z</time></trkpt><trkpt lat="42.05462956167714" lon="1.7585734299003504"><ele>855.0</ele><time>2026-03-30T08:09:41Z</time></trkpt><trkpt lat="42.05469097102408" lon="1.7583176017379993"><ele>857.6666666666667</ele><time>2026-03-30T08:09:42Z</time></trkpt><trkpt lat="42.054751095235055" lon="1.758093247807073"><ele>860.3333333333334</ele><time>2026-03-30T08:09:43Z</time></trkpt><trkpt lat="42.054813445774876" lon="1.7578735760608246"><ele>863.0</ele><time>2026-03-30T08:09:44Z</time></trkpt><trkpt lat="42.0548804784171" lon="1.7576541170387998"><ele>863.0</ele><time>2026-03-30T08:09:45Z</time></trkpt><trkpt lat="42.05494730160263" lon="1.7574283986538561"><ele>863.0</ele><time>2026-03-30T08:09:46Z</time></trkpt><trkpt lat="42.05501625284801" lon="1.7572019217801398"><ele>863.0</ele><time>2026-03-30T08:09:47Z</time></trkpt><trkpt lat="42.0550899832267" lon="1.7569701456622675"><ele>862.6666666666667</ele><time>2026-03-30T08:09:48Z</time></trkpt><trkpt lat="42.055162497391606" lon="1.7567373428476774"><ele>862.3333333333333</ele><time>2026-03-30T08:09:49Z</time></trkpt><trkpt lat="42.05523461153267" lon="1.756502410597466"><ele>862.0</ele><time>2026-03-30T08:09:50Z</time></trkpt><trkpt lat="42.055310728322205" lon="1.7562481773133323"><ele>861.0</ele><time>2026-03-30T08:09:51Z</time></trkpt><trkpt lat="42.05538338537342" lon="1.7559944956506903"><ele>860.0</ele><time>2026-03-30T08:09:52Z</time></trkpt><trkpt lat="42.05545180530614" lon="1.7557593720977034"><ele>859.0</ele><time>2026-03-30T08:09:53Z</time></trkpt><trkpt lat="42.05550773642005" lon="1.755523006588815"><ele>859.0</ele><time>2026-03-30T08:09:54Z</time></trkpt><trkpt lat="42.055528075682574" lon="1.755284721869941"><ele>859.0</ele><time>2026-03-30T08:09:55Z</time></trkpt><trkpt lat="42.05551897490813" lon="1.7550568150371675"><ele>859.0</ele><time>2026-03-30T08:09:56Z</time></trkpt><trkpt lat="42.05551766824585" lon="1.7548266194802664"><ele>857.3333333333333</ele><time>2026-03-30T08:09:57Z</time></trkpt><trkpt lat="42.055558831526845" lon="1.7545922734994333"><ele>855.6666666666667</ele><time>2026-03-30T08:09:58Z</time></trkpt><trkpt lat="42.055629922885686" lon="1.7543603841607935"><ele>854.0</ele><time>2026-03-30T08:09:59Z</time></trkpt><trkpt lat="42.05567219808898" lon="1.7541336639457077"><ele>854.0</ele><time>2026-03-30T08:10:00Z</time></trkpt><trkpt lat="42.05568217673832" lon="1.7539065015482922"><ele>854.0</ele><time>2026-03-30T08:10:01Z</time></trkpt><trkpt lat="42.055662175761846" lon="1.7536695787211258"><ele>854.0</ele><time>2026-03-30T08:10:02Z</time></trkpt><trkpt lat="42.05564718060498" lon="1.7534093040474574"><ele>854.0</ele><time>2026-03-30T08:10:03Z</time></trkpt><trkpt lat="42.055636626044574" lon="1.7531264303984253"><ele>854.0</ele><time>2026-03-30T08:10:04Z</time></trkpt><trkpt lat="42.055622385996614" lon="1.7528320097196193"><ele>854.0</ele><time>2026-03-30T08:10:05Z</time></trkpt><trkpt lat="42.055605745496536" lon="1.7525615768299123"><ele>854.3333333333334</ele><time>2026-03-30T08:10:06Z</time></trkpt><trkpt lat="42.05559589199812" lon="1.7522941508736571"><ele>854.6666666666667</ele><time>2026-03-30T08:10:07Z</time></trkpt><trkpt lat="42.055584634919995" lon="1.7520292345958963"><ele>855.0</ele><time>2026-03-30T08:10:08Z</time></trkpt><trkpt lat="42.055570889660345" lon="1.7517692898036388"><ele>855.0</ele><time>2026-03-30T08:10:09Z</time></trkpt><trkpt lat="42.055537116749775" lon="1.7515161622227484"><ele>855.0</ele><time>2026-03-30T08:10:10Z</time></trkpt><trkpt lat="42.05547371058361" lon="1.7512764863120112"><ele>855.0</ele><time>2026-03-30T08:10:11Z</time></trkpt><trkpt lat="42.05539884183831" lon="1.7510492593966414"><ele>854.0</ele><time>2026-03-30T08:10:12Z</time></trkpt><trkpt lat="42.05533400718138" lon="1.7508256658310604"><ele>853.0</ele><time>2026-03-30T08:10:13Z</time></trkpt><trkpt lat="42.05527012716249" lon="1.7506028951231614"><ele>852.0</ele><time>2026-03-30T08:10:14Z</time></trkpt><trkpt lat="42.05520444125342" lon="1.7503815087434484"><ele>853.3333333333333</ele><time>2026-03-30T08:10:15Z</time></trkpt><trkpt lat="42.0551434356545" lon="1.7501591988485534"><ele>854.6666666666666</ele><time>2026-03-30T08:10:16Z</time></trkpt><trkpt lat="42.05508026882351" lon="1.7499382588602226"><ele>856.0</ele><time>2026-03-30T08:10:17Z</time></trkpt><trkpt lat="42.05501889916052" lon="1.7497108851314156"><ele>856.0</ele><time>2026-03-30T08:10:18Z</time></trkpt><trkpt lat="42.05496011396776" lon="1.7494783106877905"><ele>856.0</ele><time>2026-03-30T08:10:19Z</time></trkpt><trkpt lat="42.0548996488196" lon="1.7492397827428214"><ele>856.0</ele><time>2026-03-30T08:10:20Z</time></trkpt><trkpt lat="42.05484036835236" lon="1.749001110646346"><ele>857.0</ele><time>2026-03-30T08:10:21Z</time></trkpt><trkpt lat="42.05478423817718" lon="1.7487620444771053"><ele>858.0</ele><time>2026-03-30T08:10:22Z</time></trkpt><trkpt lat="42.05472767290349" lon="1.74852604921785"><ele>859.0</ele><time>2026-03-30T08:10:23Z</time></trkpt><trkpt lat="42.05466479658855" lon="1.7482925284283755"><ele>859.3333333333333</ele><time>2026-03-30T08:10:24Z</time></trkpt><trkpt lat="42.05460434993236" lon="1.7480663358101727"><ele>859.6666666666667</ele><time>2026-03-30T08:10:25Z</time></trkpt><trkpt lat="42.054547390399904" lon="1.7478363607070835"><ele>860.0</ele><time>2026-03-30T08:10:26Z</time></trkpt><trkpt lat="42.05448865598643" lon="1.7475945597497564"><ele>860.3333333333334</ele><time>2026-03-30T08:10:27Z</time></trkpt><trkpt lat="42.05442382679941" lon="1.7473375500197437"><ele>860.6666666666667</ele><time>2026-03-30T08:10:28Z</time></trkpt><trkpt lat="42.05435573549162" lon="1.747069067580594"><ele>861.0</ele><time>2026-03-30T08:10:29Z</time></trkpt><trkpt lat="42.0542906268315" lon="1.7468078166348304"><ele>861.0</ele><time>2026-03-30T08:10:30Z</time></trkpt><trkpt lat="42.05422409284423" lon="1.7465434252150396"><ele>861.0</ele><time>2026-03-30T08:10:31Z</time></trkpt><trkpt lat="42.05415838927057" lon="1.7462813584372185"><ele>861.0</ele><time>2026-03-30T08:10:32Z</time></trkpt><trkpt lat="42.05409138941624" lon="1.7460200550390284"><ele>859.3333333333333</ele><time>2026-03-30T08:10:33Z</time></trkpt><trkpt lat="42.05402392612402" lon="1.7457622706565121"><ele>857.6666666666666</ele><time>2026-03-30T08:10:34Z</time></trkpt><trkpt lat="42.05395932367448" lon="1.7455033289062374"><ele>856.0</ele><time>2026-03-30T08:10:35Z</time></trkpt><trkpt lat="42.053898895698545" lon="1.7452433708654589"><ele>856.3333333333333</ele><time>2026-03-30T08:10:36Z</time></trkpt><trkpt lat="42.05383652923124" lon="1.7449879754300814"><ele>856.6666666666667</ele><time>2026-03-30T08:10:37Z</time></trkpt><trkpt lat="42.053768835522405" lon="1.7447331191966173"><ele>857.0</ele><time>2026-03-30T08:10:38Z</time></trkpt><trkpt lat="42.05370232681284" lon="1.7444833929064565"><ele>858.0</ele><time>2026-03-30T08:10:39Z</time></trkpt><trkpt lat="42.053639861312384" lon="1.7442356023213286"><ele>859.0</ele><time>2026-03-30T08:10:40Z</time></trkpt><trkpt lat="42.05357806131114" lon="1.7439886887053528"><ele>860.0</ele><time>2026-03-30T08:10:41Z</time></trkpt><trkpt lat="42.05351646943317" lon="1.7437450882188195"><ele>861.3333333333334</ele><time>2026-03-30T08:10:42Z</time></trkpt><trkpt lat="42.05345581727997" lon="1.7435046713778874"><ele>862.6666666666667</ele><time>2026-03-30T08:10:43Z</time></trkpt><trkpt lat="42.05339541470764" lon="1.7432652996896394"><ele>864.0</ele><time>2026-03-30T08:10:44Z</time></trkpt><trkpt lat="42.05333645284977" lon="1.7430373975167424"><ele>864.3333333333333</ele><time>2026-03-30T08:10:45Z</time></trkpt><trkpt lat="42.053272532078715" lon="1.7428196505178006"><ele>864.6666666666666</ele><time>2026-03-30T08:10:46Z</time></trkpt><trkpt lat="42.05319648672933" lon="1.7426100817028989"><ele>865.0</ele><time>2026-03-30T08:10:47Z</time></trkpt><trkpt lat="42.053089837092024" lon="1.7424279901967576"><ele>865.3333333333333</ele><time>2026-03-30T08:10:48Z</time></trkpt><trkpt lat="42.05294088805628" lon="1.7422620298546223"><ele>865.6666666666667</ele><time>2026-03-30T08:10:49Z</time></trkpt><trkpt lat="42.052772619623084" lon="1.742141013254213"><ele>866.0</ele><time>2026-03-30T08:10:50Z</time></trkpt><trkpt lat="42.05262119692411" lon="1.741994234113027"><ele>866.3333333333334</ele><time>2026-03-30T08:10:51Z</time></trkpt><trkpt lat="42.052454704748556" lon="1.7418860150839017"><ele>866.6666666666667</ele><time>2026-03-30T08:10:52Z</time></trkpt><trkpt lat="42.05228067824974" lon="1.7417417213662765"><ele>867.0</ele><time>2026-03-30T08:10:53Z</time></trkpt><trkpt lat="42.05210217306602" lon="1.7415971821361955"><ele>867.0</ele><time>2026-03-30T08:10:54Z</time></trkpt><trkpt lat="42.0519298710105" lon="1.741459939136361"><ele>867.0</ele><time>2026-03-30T08:10:55Z</time></trkpt><trkpt lat="42.051752527769096" lon="1.7413241033847444"><ele>867.0</ele><time>2026-03-30T08:10:56Z</time></trkpt><trkpt lat="42.05157467379489" lon="1.74118580486183"><ele>869.0</ele><time>2026-03-30T08:10:57Z</time></trkpt><trkpt lat="42.05139967500508" lon="1.7410450545649205"><ele>871.0</ele><time>2026-03-30T08:10:58Z</time></trkpt><trkpt lat="42.051226926297076" lon="1.740907705182179"><ele>873.0</ele><time>2026-03-30T08:10:59Z</time></trkpt><trkpt lat="42.05105740564733" lon="1.7407723204277266"><ele>873.0</ele><time>2026-03-30T08:11:00Z</time></trkpt><trkpt lat="42.05088880880057" lon="1.740638306853276"><ele>873.0</ele><time>2026-03-30T08:11:01Z</time></trkpt><trkpt lat="42.05073017602464" lon="1.7404864413397383"><ele>873.0</ele><time>2026-03-30T08:11:02Z</time></trkpt><trkpt lat="42.05056126084037" lon="1.740349790184902"><ele>874.0</ele><time>2026-03-30T08:11:03Z</time></trkpt><trkpt lat="42.050387699817" lon="1.7402342574976588"><ele>875.0</ele><time>2026-03-30T08:11:04Z</time></trkpt><trkpt lat="42.05023502259169" lon="1.7401104302389416"><ele>876.0</ele><time>2026-03-30T08:11:05Z</time></trkpt><trkpt lat="42.05008816591563" lon="1.7400010171173423"><ele>877.3333333333333</ele><time>2026-03-30T08:11:06Z</time></trkpt><trkpt lat="42.04994106552216" lon="1.7398953240954576"><ele>878.6666666666666</ele><time>2026-03-30T08:11:07Z</time></trkpt><trkpt lat="42.04975110375346" lon="1.7398702744727936"><ele>880.0</ele><time>2026-03-30T08:11:08Z</time></trkpt><trkpt lat="42.04956077545763" lon="1.7398477717616343"><ele>880.0</ele><time>2026-03-30T08:11:09Z</time></trkpt><trkpt lat="42.04935575640758" lon="1.739804401549593"><ele>880.0</ele><time>2026-03-30T08:11:10Z</time></trkpt><trkpt lat="42.0491637902578" lon="1.7397830469354545"><ele>880.0</ele><time>2026-03-30T08:11:11Z</time></trkpt><trkpt lat="42.04897052429256" lon="1.7397621377127583"><ele>881.3333333333333</ele><time>2026-03-30T08:11:12Z</time></trkpt><trkpt lat="42.04877800876206" lon="1.739740500015269"><ele>882.6666666666667</ele><time>2026-03-30T08:11:13Z</time></trkpt><trkpt lat="42.04858487272828" lon="1.7397186976210677"><ele>884.0</ele><time>2026-03-30T08:11:14Z</time></trkpt><trkpt lat="42.048388617823115" lon="1.7397186069511077"><ele>885.3333333333334</ele><time>2026-03-30T08:11:15Z</time></trkpt><trkpt lat="42.04819964898711" lon="1.7396752318402957"><ele>886.6666666666667</ele><time>2026-03-30T08:11:16Z</time></trkpt><trkpt lat="42.04800855841994" lon="1.739654362412885"><ele>888.0</ele><time>2026-03-30T08:11:17Z</time></trkpt><trkpt lat="42.04781754152058" lon="1.7396335010273472"><ele>888.0</ele><time>2026-03-30T08:11:18Z</time></trkpt><trkpt lat="42.04762616303816" lon="1.7396126001517662"><ele>888.0</ele><time>2026-03-30T08:11:19Z</time></trkpt><trkpt lat="42.04742039901264" lon="1.7395890311672184"><ele>888.0</ele><time>2026-03-30T08:11:20Z</time></trkpt><trkpt lat="42.04720382953384" lon="1.739562330835826"><ele>888.3333333333333</ele><time>2026-03-30T08:11:21Z</time></trkpt><trkpt lat="42.04699036255734" lon="1.7395360129918933"><ele>888.6666666666666</ele><time>2026-03-30T08:11:22Z</time></trkpt><trkpt lat="42.046781103683365" lon="1.7395121141902123"><ele>889.0</ele><time>2026-03-30T08:11:23Z</time></trkpt><trkpt lat="42.046571282855915" lon="1.7394890828928549"><ele>887.6666666666666</ele><time>2026-03-30T08:11:24Z</time></trkpt><trkpt lat="42.04636011582625" lon="1.7394659038272289"><ele>886.3333333333333</ele><time>2026-03-30T08:11:25Z</time></trkpt><trkpt lat="42.046151229577575" lon="1.7394405603452383"><ele>885.0</ele><time>2026-03-30T08:11:26Z</time></trkpt><trkpt lat="42.0459433892434" lon="1.7394150144712799"><ele>885.6666666666667</ele><time>2026-03-30T08:11:27Z</time></trkpt><trkpt lat="42.04573947016769" lon="1.7393899505608303"><ele>886.3333333333334</ele><time>2026-03-30T08:11:28Z</time></trkpt><trkpt lat="42.0455361434433" lon="1.7393663554787628"><ele>887.0</ele><time>2026-03-30T08:11:29Z</time></trkpt><trkpt lat="42.045356514683185" lon="1.7393486978545818"><ele>886.6666666666667</ele><time>2026-03-30T08:11:30Z</time></trkpt><trkpt lat="42.04517659462714" lon="1.7393300917639747"><ele>886.3333333333333</ele><time>2026-03-30T08:11:31Z</time></trkpt><trkpt lat="42.04500439911252" lon="1.7393012707616649"><ele>886.0</ele><time>2026-03-30T08:11:32Z</time></trkpt><trkpt lat="42.044843849233686" lon="1.7392337733681806"><ele>886.0</ele><time>2026-03-30T08:11:33Z</time></trkpt><trkpt lat="42.044695908779886" lon="1.7391002903009314"><ele>886.0</ele><time>2026-03-30T08:11:34Z</time></trkpt><trkpt lat="42.04454997481872" lon="1.738926135865071"><ele>886.0</ele><time>2026-03-30T08:11:35Z</time></trkpt><trkpt lat="42.044394044415235" lon="1.7387471485018426"><ele>886.0</ele><time>2026-03-30T08:11:36Z</time></trkpt><trkpt lat="42.044241924383186" lon="1.7385729795068112"><ele>886.0</ele><time>2026-03-30T08:11:37Z</time></trkpt><trkpt lat="42.044090129679525" lon="1.7383991830584102"><ele>886.0</ele><time>2026-03-30T08:11:38Z</time></trkpt><trkpt lat="42.04394077204473" lon="1.7382281770810868"><ele>887.0</ele><time>2026-03-30T08:11:39Z</time></trkpt><trkpt lat="42.04379789768105" lon="1.738064566664395"><ele>888.0</ele><time>2026-03-30T08:11:40Z</time></trkpt><trkpt lat="42.043649645628335" lon="1.7379225766772917"><ele>889.0</ele><time>2026-03-30T08:11:41Z</time></trkpt><trkpt lat="42.04351392645638" lon="1.737763580412579"><ele>889.3333333333333</ele><time>2026-03-30T08:11:42Z</time></trkpt><trkpt lat="42.043381613088116" lon="1.737604614838042"><ele>889.6666666666667</ele><time>2026-03-30T08:11:43Z</time></trkpt><trkpt lat="42.04324579292952" lon="1.7374428996990963"><ele>890.0</ele><time>2026-03-30T08:11:44Z</time></trkpt><trkpt lat="42.04310177413366" lon="1.7372758471661398"><ele>888.6666666666667</ele><time>2026-03-30T08:11:45Z</time></trkpt><trkpt lat="42.042953621139404" lon="1.737113607599425"><ele>887.3333333333333</ele><time>2026-03-30T08:11:46Z</time></trkpt><trkpt lat="42.04281810125418" lon="1.7369610342508426"><ele>886.0</ele><time>2026-03-30T08:11:47Z</time></trkpt><trkpt lat="42.04268515206016" lon="1.7368085324974278"><ele>886.0</ele><time>2026-03-30T08:11:48Z</time></trkpt><trkpt lat="42.04255352757373" lon="1.7366599317881128"><ele>886.0</ele><time>2026-03-30T08:11:49Z</time></trkpt><trkpt lat="42.04242197652118" lon="1.736525374279661"><ele>886.0</ele><time>2026-03-30T08:11:50Z</time></trkpt><trkpt lat="42.04228258830251" lon="1.736431745655404"><ele>884.3333333333333</ele><time>2026-03-30T08:11:51Z</time></trkpt><trkpt lat="42.04209176139158" lon="1.736406628087486"><ele>882.6666666666667</ele><time>2026-03-30T08:11:52Z</time></trkpt><trkpt lat="42.04191224109683" lon="1.736487083744859"><ele>881.0</ele><time>2026-03-30T08:11:53Z</time></trkpt><trkpt lat="42.04173237334522" lon="1.7365439975363677"><ele>878.6666666666667</ele><time>2026-03-30T08:11:54Z</time></trkpt><trkpt lat="42.04156075772679" lon="1.7365864969017146"><ele>876.3333333333333</ele><time>2026-03-30T08:11:55Z</time></trkpt><trkpt lat="42.04139595284963" lon="1.7366294378850577"><ele>874.0</ele><time>2026-03-30T08:11:56Z</time></trkpt><trkpt lat="42.04122631125336" lon="1.7366672894638968"><ele>874.0</ele><time>2026-03-30T08:11:57Z</time></trkpt><trkpt lat="42.041048596289144" lon="1.7366986651538487"><ele>874.0</ele><time>2026-03-30T08:11:58Z</time></trkpt><trkpt lat="42.04087030447585" lon="1.7367352224628343"><ele>874.0</ele><time>2026-03-30T08:11:59Z</time></trkpt><trkpt lat="42.04069862244224" lon="1.7367654169506248"><ele>871.3333333333333</ele><time>2026-03-30T08:12:00Z</time></trkpt><trkpt lat="42.04052722805719" lon="1.7367919018029823"><ele>868.6666666666667</ele><time>2026-03-30T08:12:01Z</time></trkpt><trkpt lat="42.040360738342216" lon="1.7368189915398267"><ele>866.0</ele><time>2026-03-30T08:12:02Z</time></trkpt><trkpt lat="42.04020170643183" lon="1.7368584068256454"><ele>866.0</ele><time>2026-03-30T08:12:03Z</time></trkpt><trkpt lat="42.04005172851201" lon="1.736823744943525"><ele>866.0</ele><time>2026-03-30T08:12:04Z</time></trkpt><trkpt lat="42.03992213285936" lon="1.7367184457959517"><ele>866.0</ele><time>2026-03-30T08:12:05Z</time></trkpt><trkpt lat="42.03978994990778" lon="1.7365958989022032"><ele>864.75</ele><time>2026-03-30T08:12:06Z</time></trkpt><trkpt lat="42.039663840267785" lon="1.7364767840091784"><ele>863.5</ele><time>2026-03-30T08:12:07Z</time></trkpt><trkpt lat="42.03954378899961" lon="1.7363635894169838"><ele>862.25</ele><time>2026-03-30T08:12:08Z</time></trkpt><trkpt lat="42.03942904840521" lon="1.7362562118450782"><ele>861.0</ele><time>2026-03-30T08:12:09Z</time></trkpt><trkpt lat="42.03930368211094" lon="1.7361785013961475"><ele>861.0</ele><time>2026-03-30T08:12:10Z</time></trkpt><trkpt lat="42.039177042566926" lon="1.736123355346142"><ele>861.0</ele><time>2026-03-30T08:12:11Z</time></trkpt><trkpt lat="42.039027035483976" lon="1.7361563900162926"><ele>861.0</ele><time>2026-03-30T08:12:12Z</time></trkpt><trkpt lat="42.038890752033815" lon="1.7362725333752058"><ele>861.0</ele><time>2026-03-30T08:12:13Z</time></trkpt><trkpt lat="42.03878030416444" lon="1.736439059849062"><ele>860.0</ele><time>2026-03-30T08:12:14Z</time></trkpt><trkpt lat="42.03865568325862" lon="1.7365666186371427"><ele>859.0</ele><time>2026-03-30T08:12:15Z</time></trkpt><trkpt lat="42.03852468756736" lon="1.7366466680248949"><ele>858.0</ele><time>2026-03-30T08:12:16Z</time></trkpt><trkpt lat="42.03839851293682" lon="1.7366807023826452"><ele>857.0</ele><time>2026-03-30T08:12:17Z</time></trkpt><trkpt lat="42.03829742933539" lon="1.7365851953057432"><ele>855.0</ele><time>2026-03-30T08:12:18Z</time></trkpt><trkpt lat="42.03818985660851" lon="1.736430275863576"><ele>853.0</ele><time>2026-03-30T08:12:19Z</time></trkpt><trkpt lat="42.03807247170605" lon="1.7362973982345882"><ele>851.0</ele><time>2026-03-30T08:12:20Z</time></trkpt><trkpt lat="42.03794936105687" lon="1.7361598603734532"><ele>851.0</ele><time>2026-03-30T08:12:21Z</time></trkpt><trkpt lat="42.0378183117728" lon="1.736021153773079"><ele>851.0</ele><time>2026-03-30T08:12:22Z</time></trkpt><trkpt lat="42.0376701489434" lon="1.7359121012926941"><ele>851.0</ele><time>2026-03-30T08:12:23Z</time></trkpt><trkpt lat="42.03752122709152" lon="1.7357973255823695"><ele>849.3333333333334</ele><time>2026-03-30T08:12:24Z</time></trkpt><trkpt lat="42.03735224722995" lon="1.7357087129235154"><ele>847.6666666666667</ele><time>2026-03-30T08:12:25Z</time></trkpt><trkpt lat="42.03717125792979" lon="1.7356389443072986"><ele>846.0</ele><time>2026-03-30T08:12:26Z</time></trkpt><trkpt lat="42.03698343933867" lon="1.7355701100478451"><ele>846.0</ele><time>2026-03-30T08:12:27Z</time></trkpt><trkpt lat="42.03679218018043" lon="1.7354726098386561"><ele>846.0</ele><time>2026-03-30T08:12:28Z</time></trkpt><trkpt lat="42.036593363599344" lon="1.7354143552136492"><ele>846.0</ele><time>2026-03-30T08:12:29Z</time></trkpt><trkpt lat="42.03639801584478" lon="1.735329392572015"><ele>845.0</ele><time>2026-03-30T08:12:30Z</time></trkpt><trkpt lat="42.036200311168656" lon="1.7352423222725213"><ele>844.0</ele><time>2026-03-30T08:12:31Z</time></trkpt><trkpt lat="42.03600481662457" lon="1.735158248312882"><ele>843.0</ele><time>2026-03-30T08:12:32Z</time></trkpt><trkpt lat="42.03582118771451" lon="1.7350487084361994"><ele>841.0</ele><time>2026-03-30T08:12:33Z</time></trkpt><trkpt lat="42.03564002050967" lon="1.734967110616565"><ele>839.0</ele><time>2026-03-30T08:12:34Z</time></trkpt><trkpt lat="42.035463572278275" lon="1.7348876382279639"><ele>837.0</ele><time>2026-03-30T08:12:35Z</time></trkpt><trkpt lat="42.03529422089118" lon="1.7348124609280986"><ele>837.0</ele><time>2026-03-30T08:12:36Z</time></trkpt><trkpt lat="42.03511784575331" lon="1.7347633804590887"><ele>837.0</ele><time>2026-03-30T08:12:37Z</time></trkpt><trkpt lat="42.03493839536984" lon="1.7347125082952144"><ele>837.0</ele><time>2026-03-30T08:12:38Z</time></trkpt><trkpt lat="42.03475215667701" lon="1.7347127360294572"><ele>835.3333333333333</ele><time>2026-03-30T08:12:39Z</time></trkpt><trkpt lat="42.034567209513874" lon="1.7347709014911088"><ele>833.6666666666666</ele><time>2026-03-30T08:12:40Z</time></trkpt><trkpt lat="42.03438175101343" lon="1.7348176716509602"><ele>832.0</ele><time>2026-03-30T08:12:41Z</time></trkpt><trkpt lat="42.03418956083559" lon="1.7348314916487502"><ele>830.0</ele><time>2026-03-30T08:12:42Z</time></trkpt><trkpt lat="42.03398325698846" lon="1.7348681964509813"><ele>828.0</ele><time>2026-03-30T08:12:43Z</time></trkpt><trkpt lat="42.033750922868705" lon="1.7349095324607213"><ele>826.0</ele><time>2026-03-30T08:12:44Z</time></trkpt><trkpt lat="42.033510734145835" lon="1.7349522659273169"><ele>824.6666666666666</ele><time>2026-03-30T08:12:45Z</time></trkpt><trkpt lat="42.03328960620565" lon="1.7349939064379853"><ele>823.3333333333333</ele><time>2026-03-30T08:12:46Z</time></trkpt><trkpt lat="42.033084929260944" lon="1.7350324654277234"><ele>822.0</ele><time>2026-03-30T08:12:47Z</time></trkpt><trkpt lat="42.032886783159874" lon="1.7350695029868892"><ele>822.0</ele><time>2026-03-30T08:12:48Z</time></trkpt><trkpt lat="42.03268901740471" lon="1.735116159887669"><ele>822.0</ele><time>2026-03-30T08:12:49Z</time></trkpt><trkpt lat="42.032493029192764" lon="1.735199563597786"><ele>822.0</ele><time>2026-03-30T08:12:50Z</time></trkpt><trkpt lat="42.0322874537443" lon="1.7353097737922223"><ele>819.0</ele><time>2026-03-30T08:12:51Z</time></trkpt><trkpt lat="42.03206378339773" lon="1.7354615211893905"><ele>816.0</ele><time>2026-03-30T08:12:52Z</time></trkpt><trkpt lat="42.03183169120368" lon="1.7355870509025197"><ele>813.5</ele><time>2026-03-30T08:12:53Z</time></trkpt><trkpt lat="42.03161857288362" lon="1.7357441057750984"><ele>811.0</ele><time>2026-03-30T08:12:54Z</time></trkpt><trkpt lat="42.03139635217038" lon="1.7358621952722957"><ele>811.0</ele><time>2026-03-30T08:12:55Z</time></trkpt><trkpt lat="42.031196486937574" lon="1.736010063838458"><ele>811.0</ele><time>2026-03-30T08:12:56Z</time></trkpt><trkpt lat="42.031001010805966" lon="1.7361293325099534"><ele>811.0</ele><time>2026-03-30T08:12:57Z</time></trkpt><trkpt lat="42.03081733098186" lon="1.7362495808136695"><ele>809.6666666666666</ele><time>2026-03-30T08:12:58Z</time></trkpt><trkpt lat="42.03063835651296" lon="1.7363402468692588"><ele>808.3333333333333</ele><time>2026-03-30T08:12:59Z</time></trkpt><trkpt lat="42.03047032778155" lon="1.7364385763262042"><ele>807.0</ele><time>2026-03-30T08:13:00Z</time></trkpt><trkpt lat="42.03032809971199" lon="1.7365131347510483"><ele>807.0</ele><time>2026-03-30T08:13:01Z</time></trkpt><trkpt lat="42.030216515460666" lon="1.736505643274517"><ele>807.0</ele><time>2026-03-30T08:13:02Z</time></trkpt><trkpt lat="42.030133192111734" lon="1.7364138363894073"><ele>807.0</ele><time>2026-03-30T08:13:03Z</time></trkpt><trkpt lat="42.03002026607185" lon="1.7363103891688425"><ele>807.0</ele><time>2026-03-30T08:13:04Z</time></trkpt><trkpt lat="42.02999586607331" lon="1.7360922197330844"><ele>803.6666666666667</ele><time>2026-03-30T08:13:05Z</time></trkpt><trkpt lat="42.02990982367576" lon="1.7359351641529632"><ele>800.3333333333334</ele><time>2026-03-30T08:13:06Z</time></trkpt><trkpt lat="42.02983248327377" lon="1.7357614445919696"><ele>797.0</ele><time>2026-03-30T08:13:07Z</time></trkpt><trkpt lat="42.02974594054568" lon="1.735570556809357"><ele>797.0</ele><time>2026-03-30T08:13:08Z</time></trkpt><trkpt lat="42.02965879038258" lon="1.7353565303130019"><ele>797.0</ele><time>2026-03-30T08:13:09Z</time></trkpt><trkpt lat="42.02956637325177" lon="1.735139929833679"><ele>797.0</ele><time>2026-03-30T08:13:10Z</time></trkpt><trkpt lat="42.02947099938207" lon="1.7349294146126113"><ele>797.3333333333334</ele><time>2026-03-30T08:13:11Z</time></trkpt><trkpt lat="42.02938363165475" lon="1.7347321808528358"><ele>797.6666666666667</ele><time>2026-03-30T08:13:12Z</time></trkpt><trkpt lat="42.029298770715165" lon="1.7345438354397509"><ele>798.0</ele><time>2026-03-30T08:13:13Z</time></trkpt><trkpt lat="42.02921814941695" lon="1.7343584320550087"><ele>796.25</ele><time>2026-03-30T08:13:14Z</time></trkpt><trkpt lat="42.029136145912496" lon="1.7341764488618383"><ele>794.5</ele><time>2026-03-30T08:13:15Z</time></trkpt><trkpt lat="42.02905065235833" lon="1.7340197850900694"><ele>792.75</ele><time>2026-03-30T08:13:16Z</time></trkpt><trkpt lat="42.028949602537715" lon="1.7339250021702626"><ele>791.0</ele><time>2026-03-30T08:13:17Z</time></trkpt><trkpt lat="42.028826527354404" lon="1.7339264141629076"><ele>791.0</ele><time>2026-03-30T08:13:18Z</time></trkpt><trkpt lat="42.02868104336257" lon="1.7340449332091588"><ele>791.0</ele><time>2026-03-30T08:13:19Z</time></trkpt><trkpt lat="42.028549901783755" lon="1.7342133601659577"><ele>791.0</ele><time>2026-03-30T08:13:20Z</time></trkpt><trkpt lat="42.02843599719862" lon="1.7343466588573906"><ele>791.25</ele><time>2026-03-30T08:13:21Z</time></trkpt><trkpt lat="42.02832641469386" lon="1.734450369960258"><ele>791.5</ele><time>2026-03-30T08:13:22Z</time></trkpt><trkpt lat="42.02822288974452" lon="1.7345557396642155"><ele>791.75</ele><time>2026-03-30T08:13:23Z</time></trkpt><trkpt lat="42.02812136896213" lon="1.734623101089979"><ele>792.0</ele><time>2026-03-30T08:13:24Z</time></trkpt><trkpt lat="42.02802877335867" lon="1.7346637848493605"><ele>791.25</ele><time>2026-03-30T08:13:25Z</time></trkpt><trkpt lat="42.027920123040616" lon="1.7346487147643916"><ele>790.5</ele><time>2026-03-30T08:13:26Z</time></trkpt><trkpt lat="42.02783113891699" lon="1.734555711030733"><ele>789.75</ele><time>2026-03-30T08:13:27Z</time></trkpt><trkpt lat="42.02780481999877" lon="1.7343512362567977"><ele>789.0</ele><time>2026-03-30T08:13:28Z</time></trkpt><trkpt lat="42.02772674856523" lon="1.7341537415819204"><ele>788.3333333333333</ele><time>2026-03-30T08:13:29Z</time></trkpt><trkpt lat="42.02767126397128" lon="1.7339665333756156"><ele>787.6666666666666</ele><time>2026-03-30T08:13:30Z</time></trkpt><trkpt lat="42.0275974080133" lon="1.7337559812977548"><ele>787.0</ele><time>2026-03-30T08:13:31Z</time></trkpt><trkpt lat="42.027518944804456" lon="1.7335178814942878"><ele>784.3333333333333</ele><time>2026-03-30T08:13:32Z</time></trkpt><trkpt lat="42.02744717096168" lon="1.7332910552855127"><ele>781.6666666666667</ele><time>2026-03-30T08:13:33Z</time></trkpt><trkpt lat="42.02737520853377" lon="1.733065584438176"><ele>779.0</ele><time>2026-03-30T08:13:34Z</time></trkpt><trkpt lat="42.02730189431391" lon="1.7328398770595188"><ele>778.6666666666667</ele><time>2026-03-30T08:13:35Z</time></trkpt><trkpt lat="42.02723072701975" lon="1.7326176501996782"><ele>778.3333333333333</ele><time>2026-03-30T08:13:36Z</time></trkpt><trkpt lat="42.02716641261667" lon="1.7324022677491582"><ele>778.0</ele><time>2026-03-30T08:13:37Z</time></trkpt><trkpt lat="42.027112048433104" lon="1.7321692156941062"><ele>778.0</ele><time>2026-03-30T08:13:38Z</time></trkpt><trkpt lat="42.02712185355484" lon="1.7319148320080031"><ele>778.0</ele><time>2026-03-30T08:13:39Z</time></trkpt><trkpt lat="42.02711391827191" lon="1.7316553287351084"><ele>778.0</ele><time>2026-03-30T08:13:40Z</time></trkpt><trkpt lat="42.027133263639755" lon="1.7314073229650397"><ele>777.0</ele><time>2026-03-30T08:13:41Z</time></trkpt><trkpt lat="42.02714044985891" lon="1.7311590531481278"><ele>776.0</ele><time>2026-03-30T08:13:42Z</time></trkpt><trkpt lat="42.02714496515026" lon="1.7309145712960996"><ele>775.0</ele><time>2026-03-30T08:13:43Z</time></trkpt><trkpt lat="42.02714947422704" lon="1.7306844885186676"><ele>774.0</ele><time>2026-03-30T08:13:44Z</time></trkpt><trkpt lat="42.0271541897262" lon="1.7304790613160412"><ele>773.0</ele><time>2026-03-30T08:13:45Z</time></trkpt><trkpt lat="42.02716340411206" lon="1.7302856623851017"><ele>772.0</ele><time>2026-03-30T08:13:46Z</time></trkpt><trkpt lat="42.02711505965583" lon="1.7300898956642052"><ele>771.0</ele><time>2026-03-30T08:13:47Z</time></trkpt><trkpt lat="42.02698273413017" lon="1.729902795367128"><ele>770.0</ele><time>2026-03-30T08:13:48Z</time></trkpt><trkpt lat="42.02681005582548" lon="1.729742216322736"><ele>769.0</ele><time>2026-03-30T08:13:49Z</time></trkpt><trkpt lat="42.026675167963326" lon="1.7295683930691663"><ele>766.0</ele><time>2026-03-30T08:13:50Z</time></trkpt><trkpt lat="42.02653769265328" lon="1.7294088704649355"><ele>763.0</ele><time>2026-03-30T08:13:51Z</time></trkpt><trkpt lat="42.02638865496933" lon="1.7292616390303894"><ele>760.0</ele><time>2026-03-30T08:13:52Z</time></trkpt><trkpt lat="42.026256379894825" lon="1.7290956067229362"><ele>760.0</ele><time>2026-03-30T08:13:53Z</time></trkpt><trkpt lat="42.02613283251957" lon="1.7289427564890028"><ele>760.0</ele><time>2026-03-30T08:13:54Z</time></trkpt><trkpt lat="42.02600962452289" lon="1.7287901435251969"><ele>760.0</ele><time>2026-03-30T08:13:55Z</time></trkpt><trkpt lat="42.02593060326971" lon="1.7285916430518509"><ele>760.0</ele><time>2026-03-30T08:13:56Z</time></trkpt><trkpt lat="42.02585996876258" lon="1.7283592502957468"><ele>760.0</ele><time>2026-03-30T08:13:57Z</time></trkpt><trkpt lat="42.025772800460395" lon="1.7281181845587232"><ele>760.0</ele><time>2026-03-30T08:13:58Z</time></trkpt><trkpt lat="42.0257047278083" lon="1.7278749475989301"><ele>757.0</ele><time>2026-03-30T08:13:59Z</time></trkpt><trkpt lat="42.025630248589444" lon="1.7276345409107434"><ele>754.0</ele><time>2026-03-30T08:14:00Z</time></trkpt><trkpt lat="42.02555986663879" lon="1.727396959072353"><ele>751.0</ele><time>2026-03-30T08:14:01Z</time></trkpt><trkpt lat="42.02549206345946" lon="1.7271692359115736"><ele>751.0</ele><time>2026-03-30T08:14:02Z</time></trkpt><trkpt lat="42.02542726737095" lon="1.726958758535997"><ele>751.0</ele><time>2026-03-30T08:14:03Z</time></trkpt><trkpt lat="42.02537855086493" lon="1.7267398276426416"><ele>751.0</ele><time>2026-03-30T08:14:04Z</time></trkpt><trkpt lat="42.02530393648784" lon="1.7265338768295437"><ele>751.0</ele><time>2026-03-30T08:14:05Z</time></trkpt><trkpt lat="42.02524588326539" lon="1.7263264227468584"><ele>751.0</ele><time>2026-03-30T08:14:06Z</time></trkpt><trkpt lat="42.025188098650766" lon="1.7261293125537416"><ele>751.0</ele><time>2026-03-30T08:14:07Z</time></trkpt><trkpt lat="42.02513164389146" lon="1.7259325339433362"><ele>750.6666666666667</ele><time>2026-03-30T08:14:08Z</time></trkpt><trkpt lat="42.02505674059508" lon="1.7257650168453986"><ele>750.3333333333334</ele><time>2026-03-30T08:14:09Z</time></trkpt><trkpt lat="42.02491829735911" lon="1.7256349815325547"><ele>750.0</ele><time>2026-03-30T08:14:10Z</time></trkpt><trkpt lat="42.0248217363033" lon="1.7254405026080437"><ele>747.6666666666666</ele><time>2026-03-30T08:14:11Z</time></trkpt><trkpt lat="42.0247453554355" lon="1.7252283278773335"><ele>745.3333333333333</ele><time>2026-03-30T08:14:12Z</time></trkpt><trkpt lat="42.024680340828816" lon="1.72502401468914"><ele>743.0</ele><time>2026-03-30T08:14:13Z</time></trkpt><trkpt lat="42.024615358370404" lon="1.724819576950395"><ele>743.0</ele><time>2026-03-30T08:14:14Z</time></trkpt><trkpt lat="42.02455342138921" lon="1.7246094134945147"><ele>743.0</ele><time>2026-03-30T08:14:15Z</time></trkpt><trkpt lat="42.02441737692475" lon="1.7244455444501894"><ele>743.0</ele><time>2026-03-30T08:14:16Z</time></trkpt><trkpt lat="42.02424731765822" lon="1.7242858245116943"><ele>742.0</ele><time>2026-03-30T08:14:17Z</time></trkpt><trkpt lat="42.02406235318494" lon="1.7241448487713482"><ele>741.0</ele><time>2026-03-30T08:14:18Z</time></trkpt><trkpt lat="42.02388557872281" lon="1.7240425502889893"><ele>740.0</ele><time>2026-03-30T08:14:19Z</time></trkpt><trkpt lat="42.02371690334487" lon="1.7239663535143273"><ele>740.0</ele><time>2026-03-30T08:14:20Z</time></trkpt><trkpt lat="42.02359454938947" lon="1.7238973159312254"><ele>740.0</ele><time>2026-03-30T08:14:21Z</time></trkpt><trkpt lat="42.02350204162371" lon="1.7238080296549465"><ele>740.0</ele><time>2026-03-30T08:14:22Z</time></trkpt><trkpt lat="42.02341296387558" lon="1.7237792955090925"><ele>740.0</ele><time>2026-03-30T08:14:23Z</time></trkpt><trkpt lat="42.02332837603078" lon="1.723733095173358"><ele>740.0</ele><time>2026-03-30T08:14:24Z</time></trkpt><trkpt lat="42.02323355100691" lon="1.7236813042728343"><ele>739.0</ele><time>2026-03-30T08:14:25Z</time></trkpt><trkpt lat="42.02312497399936" lon="1.7236220036447991"><ele>738.0</ele><time>2026-03-30T08:14:26Z</time></trkpt><trkpt lat="42.02300829308646" lon="1.723569590861266"><ele>737.0</ele><time>2026-03-30T08:14:27Z</time></trkpt><trkpt lat="42.022865156571875" lon="1.7235383881486004"><ele>736.0</ele><time>2026-03-30T08:14:28Z</time></trkpt><trkpt lat="42.02272138908126" lon="1.7234637765659018"><ele>735.3333333333334</ele><time>2026-03-30T08:14:29Z</time></trkpt><trkpt lat="42.022570767249704" lon="1.7233956499047962"><ele>734.6666666666666</ele><time>2026-03-30T08:14:30Z</time></trkpt><trkpt lat="42.022409050779686" lon="1.7233443175598269"><ele>734.0</ele><time>2026-03-30T08:14:31Z</time></trkpt><trkpt lat="42.02224516483177" lon="1.7232960479408026"><ele>733.0</ele><time>2026-03-30T08:14:32Z</time></trkpt><trkpt lat="42.02207137493677" lon="1.7232584717524768"><ele>732.0</ele><time>2026-03-30T08:14:33Z</time></trkpt><trkpt lat="42.02189389413038" lon="1.7232246053230202"><ele>731.0</ele><time>2026-03-30T08:14:34Z</time></trkpt><trkpt lat="42.02171359586487" lon="1.7231922668510362"><ele>730.0</ele><time>2026-03-30T08:14:35Z</time></trkpt><trkpt lat="42.02153058213256" lon="1.7231613858935375"><ele>729.0</ele><time>2026-03-30T08:14:36Z</time></trkpt><trkpt lat="42.021339157219884" lon="1.7231229382498667"><ele>728.0</ele><time>2026-03-30T08:14:37Z</time></trkpt><trkpt lat="42.02113698113691" lon="1.723085196945611"><ele>728.0</ele><time>2026-03-30T08:14:38Z</time></trkpt><trkpt lat="42.020931409035754" lon="1.7230510611326146"><ele>728.0</ele><time>2026-03-30T08:14:39Z</time></trkpt><trkpt lat="42.02073503621533" lon="1.723009752271794"><ele>728.0</ele><time>2026-03-30T08:14:40Z</time></trkpt><trkpt lat="42.02054845483745" lon="1.7229703108183159"><ele>726.6666666666666</ele><time>2026-03-30T08:14:41Z</time></trkpt><trkpt lat="42.02035770501653" lon="1.7229444445562243"><ele>725.3333333333334</ele><time>2026-03-30T08:14:42Z</time></trkpt><trkpt lat="42.02017883557044" lon="1.7229156764305147"><ele>724.0</ele><time>2026-03-30T08:14:43Z</time></trkpt><trkpt lat="42.019994042770726" lon="1.722881617465136"><ele>722.0</ele><time>2026-03-30T08:14:44Z</time></trkpt><trkpt lat="42.01980602235604" lon="1.7228466798834232"><ele>720.0</ele><time>2026-03-30T08:14:45Z</time></trkpt><trkpt lat="42.0196198312879" lon="1.7228112796027062"><ele>718.0</ele><time>2026-03-30T08:14:46Z</time></trkpt><trkpt lat="42.01943842812096" lon="1.7227731028109183"><ele>717.6666666666667</ele><time>2026-03-30T08:14:47Z</time></trkpt><trkpt lat="42.019266021279755" lon="1.7227290123890993"><ele>717.3333333333334</ele><time>2026-03-30T08:14:48Z</time></trkpt><trkpt lat="42.01911631801985" lon="1.7226842749465816"><ele>717.0</ele><time>2026-03-30T08:14:49Z</time></trkpt><trkpt lat="42.018989191427" lon="1.7226335914039135"><ele>716.8</ele><time>2026-03-30T08:14:50Z</time></trkpt><trkpt lat="42.01888208709948" lon="1.7225669960771386"><ele>716.6</ele><time>2026-03-30T08:14:51Z</time></trkpt><trkpt lat="42.018802959157966" lon="1.7224695651044397"><ele>716.4</ele><time>2026-03-30T08:14:52Z</time></trkpt><trkpt lat="42.01880340908632" lon="1.7223050172538124"><ele>716.1999999999999</ele><time>2026-03-30T08:14:53Z</time></trkpt><trkpt lat="42.018753144158055" lon="1.7222105139373227"><ele>716.0</ele><time>2026-03-30T08:14:54Z</time></trkpt><trkpt lat="42.01866253929319" lon="1.7221561442500473"><ele>716.0</ele><time>2026-03-30T08:14:55Z</time></trkpt><trkpt lat="42.018562146465506" lon="1.7221474263418617"><ele>716.0</ele><time>2026-03-30T08:14:56Z</time></trkpt><trkpt lat="42.01845263997104" lon="1.7221857057261931"><ele>716.0</ele><time>2026-03-30T08:14:57Z</time></trkpt><trkpt lat="42.01833714389293" lon="1.7222305542685716"><ele>716.0</ele><time>2026-03-30T08:14:58Z</time></trkpt><trkpt lat="42.01821693979488" lon="1.72220851474915"><ele>715.5</ele><time>2026-03-30T08:14:59Z</time></trkpt><trkpt lat="42.01811710202607" lon="1.7220858301877484"><ele>715.0</ele><time>2026-03-30T08:15:00Z</time></trkpt><trkpt lat="42.01799631423604" lon="1.7220134198491872"><ele>714.5</ele><time>2026-03-30T08:15:01Z</time></trkpt><trkpt lat="42.01787886611131" lon="1.7219421190046345"><ele>714.0</ele><time>2026-03-30T08:15:02Z</time></trkpt><trkpt lat="42.01776587058244" lon="1.721853077320243"><ele>714.0</ele><time>2026-03-30T08:15:03Z</time></trkpt><trkpt lat="42.01764434855869" lon="1.721740880513304"><ele>714.0</ele><time>2026-03-30T08:15:04Z</time></trkpt><trkpt lat="42.01749229798049" lon="1.7216031947669277"><ele>714.0</ele><time>2026-03-30T08:15:05Z</time></trkpt><trkpt lat="42.01735335330601" lon="1.7214749179257935"><ele>713.75</ele><time>2026-03-30T08:15:06Z</time></trkpt><trkpt lat="42.01723027979012" lon="1.721356333217409"><ele>713.5</ele><time>2026-03-30T08:15:07Z</time></trkpt><trkpt lat="42.017121501605715" lon="1.7212350636419826"><ele>713.25</ele><time>2026-03-30T08:15:08Z</time></trkpt><trkpt lat="42.01701130899883" lon="1.7211231782409244"><ele>713.0</ele><time>2026-03-30T08:15:09Z</time></trkpt><trkpt lat="42.016894743117085" lon="1.7209981598304591"><ele>713.0</ele><time>2026-03-30T08:15:10Z</time></trkpt><trkpt lat="42.01677725379719" lon="1.7208734331158908"><ele>713.0</ele><time>2026-03-30T08:15:11Z</time></trkpt><trkpt lat="42.01666645262115" lon="1.7207519002946479"><ele>713.0</ele><time>2026-03-30T08:15:12Z</time></trkpt><trkpt lat="42.016566042944945" lon="1.720643738469839"><ele>713.0</ele><time>2026-03-30T08:15:13Z</time></trkpt><trkpt lat="42.016479207155015" lon="1.720546682439721"><ele>712.8333333333333</ele><time>2026-03-30T08:15:14Z</time></trkpt><trkpt lat="42.01639541797133" lon="1.7204573141186217"><ele>712.6666666666666</ele><time>2026-03-30T08:15:15Z</time></trkpt><trkpt lat="42.01633042751683" lon="1.720384812684983"><ele>712.5</ele><time>2026-03-30T08:15:16Z</time></trkpt><trkpt lat="42.01627357476858" lon="1.7203159018038519"><ele>712.3333333333334</ele><time>2026-03-30T08:15:17Z</time></trkpt><trkpt lat="42.016225578274884" lon="1.7202474944959605"><ele>712.1666666666667</ele><time>2026-03-30T08:15:18Z</time></trkpt><trkpt lat="42.01615786334807" lon="1.7202177719197282"><ele>712.0</ele><time>2026-03-30T08:15:19Z</time></trkpt><trkpt lat="42.01610836255098" lon="1.7201602325772791"><ele>712.0</ele><time>2026-03-30T08:15:20Z</time></trkpt><trkpt lat="42.01605338182733" lon="1.7200963224659147"><ele>712.0</ele><time>2026-03-30T08:15:21Z</time></trkpt><trkpt lat="42.01601495519899" lon="1.7200233704578494"><ele>712.0</ele><time>2026-03-30T08:15:22Z</time></trkpt><trkpt lat="42.015924685282165" lon="1.7199571466580263"><ele>712.0</ele><time>2026-03-30T08:15:24Z</time></trkpt><trkpt lat="42.015834860081654" lon="1.7199139708595215"><ele>712.0</ele><time>2026-03-30T08:15:26Z</time></trkpt><trkpt lat="42.01578511221591" lon="1.7198583721006129"><ele>712.0</ele><time>2026-03-30T08:15:27Z</time></trkpt><trkpt lat="42.01572709282926" lon="1.7197909298378034"><ele>711.8</ele><time>2026-03-30T08:15:28Z</time></trkpt><trkpt lat="42.01565524799074" lon="1.7197074167892825"><ele>711.6</ele><time>2026-03-30T08:15:29Z</time></trkpt><trkpt lat="42.01557716953898" lon="1.719615562055378"><ele>711.4</ele><time>2026-03-30T08:15:30Z</time></trkpt><trkpt lat="42.01550764949692" lon="1.71953376435587"><ele>711.1999999999999</ele><time>2026-03-30T08:15:31Z</time></trkpt><trkpt lat="42.015450181930795" lon="1.7194682452272605"><ele>711.0</ele><time>2026-03-30T08:15:32Z</time></trkpt><trkpt lat="42.01535658100465" lon="1.7193706292589928"><ele>710.8333333333334</ele><time>2026-03-30T08:15:34Z</time></trkpt><trkpt lat="42.01527557595613" lon="1.7192971828978247"><ele>710.6666666666666</ele><time>2026-03-30T08:15:36Z</time></trkpt><trkpt lat="42.01522121373223" lon="1.7192537091854692"><ele>710.5</ele><time>2026-03-30T08:15:38Z</time></trkpt><trkpt lat="42.01513179503229" lon="1.7191962295738628"><ele>710.3333333333333</ele><time>2026-03-30T08:15:41Z</time></trkpt><trkpt lat="42.01506422993246" lon="1.7191613445124065"><ele>710.1666666666666</ele><time>2026-03-30T08:15:42Z</time></trkpt><trkpt lat="42.014972784835535" lon="1.7191141302106263"><ele>710.0</ele><time>2026-03-30T08:15:43Z</time></trkpt><trkpt lat="42.01485586665754" lon="1.7190553836029363"><ele>710.0</ele><time>2026-03-30T08:15:44Z</time></trkpt><trkpt lat="42.014747421084884" lon="1.7190004395108334"><ele>710.0</ele><time>2026-03-30T08:15:45Z</time></trkpt><trkpt lat="42.014629455344895" lon="1.7189406720212899"><ele>710.0</ele><time>2026-03-30T08:15:46Z</time></trkpt><trkpt lat="42.01447902790225" lon="1.7188803673701503"><ele>710.0</ele><time>2026-03-30T08:15:47Z</time></trkpt><trkpt lat="42.01430212070529" lon="1.7187865814549828"><ele>709.0</ele><time>2026-03-30T08:15:48Z</time></trkpt><trkpt lat="42.014143589859145" lon="1.7187179531388774"><ele>708.0</ele><time>2026-03-30T08:15:49Z</time></trkpt><trkpt lat="42.01400794638156" lon="1.7186522122854424"><ele>707.0</ele><time>2026-03-30T08:15:50Z</time></trkpt><trkpt lat="42.01387306932339" lon="1.7185619470656377"><ele>707.0</ele><time>2026-03-30T08:15:51Z</time></trkpt><trkpt lat="42.01372085613798" lon="1.7184860923549519"><ele>707.0</ele><time>2026-03-30T08:15:52Z</time></trkpt><trkpt lat="42.01356782351177" lon="1.7184098292726946"><ele>707.0</ele><time>2026-03-30T08:15:53Z</time></trkpt><trkpt lat="42.013420217412325" lon="1.7183362704402056"><ele>706.25</ele><time>2026-03-30T08:15:54Z</time></trkpt><trkpt lat="42.013288369414596" lon="1.7182705646257563"><ele>705.5</ele><time>2026-03-30T08:15:55Z</time></trkpt><trkpt lat="42.01316756266164" lon="1.718210361115884"><ele>704.75</ele><time>2026-03-30T08:15:56Z</time></trkpt><trkpt lat="42.013046839933345" lon="1.7181501995241326"><ele>704.0</ele><time>2026-03-30T08:15:57Z</time></trkpt><trkpt lat="42.01291430742074" lon="1.7180841525614619"><ele>704.0</ele><time>2026-03-30T08:15:58Z</time></trkpt><trkpt lat="42.012774636893774" lon="1.7180146327454884"><ele>704.0</ele><time>2026-03-30T08:15:59Z</time></trkpt><trkpt lat="42.01263955359878" lon="1.7179476116289414"><ele>704.0</ele><time>2026-03-30T08:16:00Z</time></trkpt><trkpt lat="42.012513751453774" lon="1.717885195293856"><ele>704.0</ele><time>2026-03-30T08:16:01Z</time></trkpt><trkpt lat="42.01238999249942" lon="1.7178237927212292"><ele>704.25</ele><time>2026-03-30T08:16:02Z</time></trkpt><trkpt lat="42.01226489008511" lon="1.7177617235884997"><ele>704.5</ele><time>2026-03-30T08:16:03Z</time></trkpt><trkpt lat="42.012140871777305" lon="1.717699351335356"><ele>704.75</ele><time>2026-03-30T08:16:04Z</time></trkpt><trkpt lat="42.01201474668786" lon="1.7176355729669466"><ele>705.0</ele><time>2026-03-30T08:16:05Z</time></trkpt><trkpt lat="42.0118828266417" lon="1.7175711809412415"><ele>706.3333333333334</ele><time>2026-03-30T08:16:06Z</time></trkpt><trkpt lat="42.01173090288686" lon="1.7175138894066615"><ele>707.6666666666667</ele><time>2026-03-30T08:16:07Z</time></trkpt><trkpt lat="42.01157667464879" lon="1.7174799366290516"><ele>709.0</ele><time>2026-03-30T08:16:08Z</time></trkpt><trkpt lat="42.01141852203813" lon="1.7174524724024396"><ele>709.0</ele><time>2026-03-30T08:16:09Z</time></trkpt><trkpt lat="42.01126742563072" lon="1.7174275176990674"><ele>709.0</ele><time>2026-03-30T08:16:10Z</time></trkpt><trkpt lat="42.011124786451624" lon="1.717407500493776"><ele>709.0</ele><time>2026-03-30T08:16:11Z</time></trkpt><trkpt lat="42.010987030692625" lon="1.7173881696069095"><ele>709.0</ele><time>2026-03-30T08:16:12Z</time></trkpt><trkpt lat="42.01084096519429" lon="1.7173676727591718"><ele>707.0</ele><time>2026-03-30T08:16:13Z</time></trkpt><trkpt lat="42.01068210934518" lon="1.717334543467064"><ele>705.0</ele><time>2026-03-30T08:16:14Z</time></trkpt><trkpt lat="42.0105274520785" lon="1.7172869174869165"><ele>703.0</ele><time>2026-03-30T08:16:15Z</time></trkpt><trkpt lat="42.01039159919701" lon="1.7172329665656665"><ele>703.0</ele><time>2026-03-30T08:16:16Z</time></trkpt><trkpt lat="42.01025569279839" lon="1.7171831846915262"><ele>703.0</ele><time>2026-03-30T08:16:17Z</time></trkpt><trkpt lat="42.01013177252032" lon="1.7171389812552762"><ele>703.0</ele><time>2026-03-30T08:16:18Z</time></trkpt><trkpt lat="42.01000873597826" lon="1.7170994412945235"><ele>703.0</ele><time>2026-03-30T08:16:19Z</time></trkpt><trkpt lat="42.009884301006444" lon="1.7170572839439526"><ele>703.0</ele><time>2026-03-30T08:16:20Z</time></trkpt><trkpt lat="42.00975899485843" lon="1.7170052391135786"><ele>703.0</ele><time>2026-03-30T08:16:21Z</time></trkpt><trkpt lat="42.00964283815903" lon="1.716919580304071"><ele>703.0</ele><time>2026-03-30T08:16:22Z</time></trkpt><trkpt lat="42.009533716041815" lon="1.7168022942648196"><ele>703.0</ele><time>2026-03-30T08:16:23Z</time></trkpt><trkpt lat="42.00941667029382" lon="1.7166692066971523"><ele>702.5</ele><time>2026-03-30T08:16:24Z</time></trkpt><trkpt lat="42.00930273183138" lon="1.716539652693703"><ele>702.0</ele><time>2026-03-30T08:16:25Z</time></trkpt><trkpt lat="42.00919740412839" lon="1.7164198890033115"><ele>701.5</ele><time>2026-03-30T08:16:26Z</time></trkpt><trkpt lat="42.00909535269861" lon="1.7163038521309661"><ele>701.0</ele><time>2026-03-30T08:16:27Z</time></trkpt><trkpt lat="42.008978349150084" lon="1.7161968312888811"><ele>703.5</ele><time>2026-03-30T08:16:28Z</time></trkpt><trkpt lat="42.008868150535406" lon="1.716068599126267"><ele>706.0</ele><time>2026-03-30T08:16:29Z</time></trkpt><trkpt lat="42.00875762297531" lon="1.7159449521460177"><ele>708.5</ele><time>2026-03-30T08:16:30Z</time></trkpt><trkpt lat="42.008653028818614" lon="1.715833669956578"><ele>711.0</ele><time>2026-03-30T08:16:31Z</time></trkpt><trkpt lat="42.00855156241469" lon="1.715738557271267"><ele>711.0</ele><time>2026-03-30T08:16:32Z</time></trkpt><trkpt lat="42.00843087823984" lon="1.7156699826008288"><ele>711.0</ele><time>2026-03-30T08:16:33Z</time></trkpt><trkpt lat="42.008296719088214" lon="1.7156599282508034"><ele>711.0</ele><time>2026-03-30T08:16:34Z</time></trkpt><trkpt lat="42.00816431834346" lon="1.7157168216841696"><ele>711.0</ele><time>2026-03-30T08:16:35Z</time></trkpt><trkpt lat="42.008018655663115" lon="1.7158087058974596"><ele>709.6666666666666</ele><time>2026-03-30T08:16:36Z</time></trkpt><trkpt lat="42.007867146839786" lon="1.71591488993624"><ele>708.3333333333333</ele><time>2026-03-30T08:16:37Z</time></trkpt><trkpt lat="42.00771874575069" lon="1.7160315364004217"><ele>707.0</ele><time>2026-03-30T08:16:38Z</time></trkpt><trkpt lat="42.00758934722607" lon="1.7161535886933628"><ele>707.5</ele><time>2026-03-30T08:16:39Z</time></trkpt><trkpt lat="42.00746318952461" lon="1.7162449019324955"><ele>708.0</ele><time>2026-03-30T08:16:40Z</time></trkpt><trkpt lat="42.0073657301052" lon="1.716352349508989"><ele>708.5</ele><time>2026-03-30T08:16:41Z</time></trkpt><trkpt lat="42.00726973218729" lon="1.7164378157241424"><ele>709.0</ele><time>2026-03-30T08:16:42Z</time></trkpt><trkpt lat="42.00717065551847" lon="1.716522577619284"><ele>709.0</ele><time>2026-03-30T08:16:43Z</time></trkpt><trkpt lat="42.00706883165284" lon="1.7165386470870863"><ele>709.0</ele><time>2026-03-30T08:16:44Z</time></trkpt><trkpt lat="42.00697188536246" lon="1.716501727283825"><ele>709.0</ele><time>2026-03-30T08:16:45Z</time></trkpt><trkpt lat="42.006852343150626" lon="1.7164679492281747"><ele>709.0</ele><time>2026-03-30T08:16:46Z</time></trkpt><trkpt lat="42.006721990101994" lon="1.7164283939616405"><ele>707.0</ele><time>2026-03-30T08:16:47Z</time></trkpt><trkpt lat="42.00658513343835" lon="1.7163928095247656"><ele>705.0</ele><time>2026-03-30T08:16:48Z</time></trkpt><trkpt lat="42.00644943806253" lon="1.7163602976764092"><ele>703.0</ele><time>2026-03-30T08:16:49Z</time></trkpt><trkpt lat="42.006324501306075" lon="1.7163303635176332"><ele>701.0</ele><time>2026-03-30T08:16:50Z</time></trkpt><trkpt lat="42.006208177607434" lon="1.7163211623203487"><ele>701.0</ele><time>2026-03-30T08:16:51Z</time></trkpt><trkpt lat="42.00610898395167" lon="1.7162525137737346"><ele>701.0</ele><time>2026-03-30T08:16:52Z</time></trkpt><trkpt lat="42.00606114291602" lon="1.7161029171791558"><ele>701.0</ele><time>2026-03-30T08:16:53Z</time></trkpt><trkpt lat="42.00599436366294" lon="1.7159594729568055"><ele>701.0</ele><time>2026-03-30T08:16:54Z</time></trkpt><trkpt lat="42.00592536138002" lon="1.7158008809754386"><ele>699.75</ele><time>2026-03-30T08:16:55Z</time></trkpt><trkpt lat="42.00584239485282" lon="1.715647391030229"><ele>698.5</ele><time>2026-03-30T08:16:56Z</time></trkpt><trkpt lat="42.00577380690073" lon="1.7154811629677946"><ele>697.25</ele><time>2026-03-30T08:16:57Z</time></trkpt><trkpt lat="42.00571461700458" lon="1.715306014304771"><ele>696.0</ele><time>2026-03-30T08:16:58Z</time></trkpt><trkpt lat="42.00564588664956" lon="1.7151331525497127"><ele>696.0</ele><time>2026-03-30T08:16:59Z</time></trkpt><trkpt lat="42.00557520870796" lon="1.7149592679020331"><ele>696.0</ele><time>2026-03-30T08:17:00Z</time></trkpt><trkpt lat="42.00550814487121" lon="1.7147954285606215"><ele>696.0</ele><time>2026-03-30T08:17:01Z</time></trkpt><trkpt lat="42.00544825521237" lon="1.7146391394326062"><ele>696.0</ele><time>2026-03-30T08:17:02Z</time></trkpt><trkpt lat="42.0053931814894" lon="1.7144876702641123"><ele>696.5999999999999</ele><time>2026-03-30T08:17:03Z</time></trkpt><trkpt lat="42.005346686003854" lon="1.7143445581615044"><ele>697.2</ele><time>2026-03-30T08:17:04Z</time></trkpt><trkpt lat="42.00529233180819" lon="1.7142238628641107"><ele>697.8</ele><time>2026-03-30T08:17:05Z</time></trkpt><trkpt lat="42.00523361363212" lon="1.7141091451955062"><ele>698.4000000000001</ele><time>2026-03-30T08:17:06Z</time></trkpt><trkpt lat="42.0051152064534" lon="1.7140759762519335"><ele>699.0</ele><time>2026-03-30T08:17:07Z</time></trkpt><trkpt lat="42.004976032544896" lon="1.7140450467310542"><ele>699.0</ele><time>2026-03-30T08:17:08Z</time></trkpt><trkpt lat="42.00481650541007" lon="1.7140306084625025"><ele>699.0</ele><time>2026-03-30T08:17:09Z</time></trkpt><trkpt lat="42.004679176552266" lon="1.7139474479492744"><ele>699.0</ele><time>2026-03-30T08:17:10Z</time></trkpt><trkpt lat="42.004578484757275" lon="1.7138475439353924"><ele>699.0</ele><time>2026-03-30T08:17:11Z</time></trkpt><trkpt lat="42.004500142017484" lon="1.7137452269759412"><ele>699.0</ele><time>2026-03-30T08:17:12Z</time></trkpt><trkpt lat="42.00446891313855" lon="1.7136192901123557"><ele>699.0</ele><time>2026-03-30T08:17:13Z</time></trkpt><trkpt lat="42.004467250611725" lon="1.713485200563884"><ele>699.0</ele><time>2026-03-30T08:17:14Z</time></trkpt><trkpt lat="42.0044362937817" lon="1.7133677591813932"><ele>699.0</ele><time>2026-03-30T08:17:15Z</time></trkpt><trkpt lat="42.0043978542114" lon="1.7132423260480454"><ele>699.0</ele><time>2026-03-30T08:17:16Z</time></trkpt><trkpt lat="42.00429136681477" lon="1.713165170902219"><ele>700.8000000000001</ele><time>2026-03-30T08:17:17Z</time></trkpt><trkpt lat="42.00418367030955" lon="1.71311435821517"><ele>702.6</ele><time>2026-03-30T08:17:18Z</time></trkpt><trkpt lat="42.00408186434654" lon="1.7130571952376914"><ele>704.4</ele><time>2026-03-30T08:17:19Z</time></trkpt><trkpt lat="42.00399052076584" lon="1.7129824552002355"><ele>706.2</ele><time>2026-03-30T08:17:20Z</time></trkpt><trkpt lat="42.00392149867757" lon="1.7128599692618287"><ele>708.0</ele><time>2026-03-30T08:17:21Z</time></trkpt><trkpt lat="42.00383885598025" lon="1.7127204251246118"><ele>715.0</ele><time>2026-03-30T08:17:22Z</time></trkpt><trkpt lat="42.00374149044666" lon="1.7125654667998693"><ele>722.0</ele><time>2026-03-30T08:17:23Z</time></trkpt><trkpt lat="42.00361024936731" lon="1.7124389903246724"><ele>729.0</ele><time>2026-03-30T08:17:24Z</time></trkpt><trkpt lat="42.00341658952754" lon="1.7124222505893383"><ele>728.25</ele><time>2026-03-30T08:17:25Z</time></trkpt><trkpt lat="42.00327147960389" lon="1.7124430284791177"><ele>727.5</ele><time>2026-03-30T08:17:26Z</time></trkpt><trkpt lat="42.00314434302584" lon="1.712439245208096"><ele>726.75</ele><time>2026-03-30T08:17:27Z</time></trkpt><trkpt lat="42.00302697405352" lon="1.712418707233168"><ele>726.0</ele><time>2026-03-30T08:17:28Z</time></trkpt><trkpt lat="42.00290264876294" lon="1.7123957514699562"><ele>726.0</ele><time>2026-03-30T08:17:29Z</time></trkpt><trkpt lat="42.002760708038714" lon="1.7124008195374565"><ele>726.0</ele><time>2026-03-30T08:17:30Z</time></trkpt><trkpt lat="42.00262124801018" lon="1.7123757264105004"><ele>726.0</ele><time>2026-03-30T08:17:31Z</time></trkpt><trkpt lat="42.00248107231023" lon="1.7123615103052032"><ele>726.0</ele><time>2026-03-30T08:17:32Z</time></trkpt><trkpt lat="42.00233860081466" lon="1.7123867778352067"><ele>727.0</ele><time>2026-03-30T08:17:33Z</time></trkpt><trkpt lat="42.00219421261482" lon="1.7124512423529716"><ele>728.0</ele><time>2026-03-30T08:17:34Z</time></trkpt><trkpt lat="42.00203844252471" lon="1.7125210289012616"><ele>729.0</ele><time>2026-03-30T08:17:35Z</time></trkpt><trkpt lat="42.00189282524889" lon="1.7126071532500227"><ele>729.0</ele><time>2026-03-30T08:17:36Z</time></trkpt><trkpt lat="42.001744306821905" lon="1.7126818616732025"><ele>729.0</ele><time>2026-03-30T08:17:37Z</time></trkpt><trkpt lat="42.00159126108145" lon="1.7127622184270428"><ele>729.0</ele><time>2026-03-30T08:17:38Z</time></trkpt><trkpt lat="42.00144472358851" lon="1.7128743171288379"><ele>726.0</ele><time>2026-03-30T08:17:39Z</time></trkpt><trkpt lat="42.001314974972814" lon="1.7129739444425442"><ele>723.0</ele><time>2026-03-30T08:17:40Z</time></trkpt><trkpt lat="42.00117938235901" lon="1.7130959333497224"><ele>720.0</ele><time>2026-03-30T08:17:41Z</time></trkpt><trkpt lat="42.00105246748809" lon="1.7132255562526542"><ele>720.0</ele><time>2026-03-30T08:17:42Z</time></trkpt><trkpt lat="42.00093854998112" lon="1.71337527094921"><ele>720.0</ele><time>2026-03-30T08:17:43Z</time></trkpt><trkpt lat="42.00084397572037" lon="1.7135292363071213"><ele>720.0</ele><time>2026-03-30T08:17:44Z</time></trkpt><trkpt lat="42.00072815474708" lon="1.7136405220842164"><ele>718.0</ele><time>2026-03-30T08:17:45Z</time></trkpt><trkpt lat="42.000613646904604" lon="1.7137450845064561"><ele>716.0</ele><time>2026-03-30T08:17:46Z</time></trkpt><trkpt lat="42.000498392980305" lon="1.7138448626471068"><ele>714.0</ele><time>2026-03-30T08:17:47Z</time></trkpt><trkpt lat="42.00040873022829" lon="1.7139737692094927"><ele>712.0</ele><time>2026-03-30T08:17:48Z</time></trkpt><trkpt lat="42.000337047003484" lon="1.7141252587505238"><ele>712.0</ele><time>2026-03-30T08:17:49Z</time></trkpt><trkpt lat="42.00026595684783" lon="1.7142489886078423"><ele>712.0</ele><time>2026-03-30T08:17:50Z</time></trkpt><trkpt lat="42.00017939120403" lon="1.7143298723153275"><ele>712.0</ele><time>2026-03-30T08:17:51Z</time></trkpt><trkpt lat="42.0000844145919" lon="1.7143516261644307"><ele>712.0</ele><time>2026-03-30T08:17:52Z</time></trkpt><trkpt lat="41.99999511696598" lon="1.7143044777100676"><ele>712.0</ele><time>2026-03-30T08:17:53Z</time></trkpt><trkpt lat="41.99994330510461" lon="1.7142222077004634"><ele>712.0</ele><time>2026-03-30T08:17:54Z</time></trkpt><trkpt lat="41.9998694552968" lon="1.714100046231037"><ele>712.0</ele><time>2026-03-30T08:17:55Z</time></trkpt><trkpt lat="41.999775359028526" lon="1.7139534925951079"><ele>712.0</ele><time>2026-03-30T08:17:56Z</time></trkpt><trkpt lat="41.99967777669605" lon="1.713808503691778"><ele>712.0</ele><time>2026-03-30T08:17:57Z</time></trkpt><trkpt lat="41.99958484377799" lon="1.7136775985189856"><ele>712.0</ele><time>2026-03-30T08:17:58Z</time></trkpt><trkpt lat="41.99945831022138" lon="1.7135757815016495"><ele>712.0</ele><time>2026-03-30T08:17:59Z</time></trkpt><trkpt lat="41.99932033661993" lon="1.71347830813018"><ele>712.0</ele><time>2026-03-30T08:18:00Z</time></trkpt><trkpt lat="41.999169065247926" lon="1.713397098214525"><ele>710.3333333333334</ele><time>2026-03-30T08:18:01Z</time></trkpt><trkpt lat="41.999022221623214" lon="1.713302896239297"><ele>708.6666666666666</ele><time>2026-03-30T08:18:02Z</time></trkpt><trkpt lat="41.99888289658352" lon="1.7132158136484168"><ele>707.0</ele><time>2026-03-30T08:18:03Z</time></trkpt><trkpt lat="41.99871643796236" lon="1.713186444456943"><ele>707.0</ele><time>2026-03-30T08:18:04Z</time></trkpt><trkpt lat="41.99851444913615" lon="1.713231324578556"><ele>707.0</ele><time>2026-03-30T08:18:05Z</time></trkpt><trkpt lat="41.998309573033865" lon="1.7132724053728925"><ele>707.0</ele><time>2026-03-30T08:18:06Z</time></trkpt><trkpt lat="41.998105655443965" lon="1.71325605962252"><ele>705.0</ele><time>2026-03-30T08:18:07Z</time></trkpt><trkpt lat="41.99791211129271" lon="1.7132779828689464"><ele>703.0</ele><time>2026-03-30T08:18:08Z</time></trkpt><trkpt lat="41.99772336976026" lon="1.7132828909063471"><ele>701.0</ele><time>2026-03-30T08:18:09Z</time></trkpt><trkpt lat="41.99754899789798" lon="1.7133181681686815"><ele>701.3333333333333</ele><time>2026-03-30T08:18:10Z</time></trkpt><trkpt lat="41.9973797362272" lon="1.7133544516487185"><ele>701.6666666666666</ele><time>2026-03-30T08:18:11Z</time></trkpt><trkpt lat="41.99721605790328" lon="1.7134087363080486"><ele>702.0</ele><time>2026-03-30T08:18:12Z</time></trkpt><trkpt lat="41.9970709004652" lon="1.7135162509055593"><ele>694.0</ele><time>2026-03-30T08:18:13Z</time></trkpt><trkpt lat="41.996934820182446" lon="1.7136433705891079"><ele>686.0</ele><time>2026-03-30T08:18:14Z</time></trkpt><trkpt lat="41.9967962900423" lon="1.7137625431090338"><ele>678.0</ele><time>2026-03-30T08:18:15Z</time></trkpt><trkpt lat="41.99663429672264" lon="1.713840341233172"><ele>678.0</ele><time>2026-03-30T08:18:16Z</time></trkpt><trkpt lat="41.9964690876043" lon="1.7139253139909243"><ele>678.0</ele><time>2026-03-30T08:18:17Z</time></trkpt><trkpt lat="41.996310420318174" lon="1.7140384762794683"><ele>678.0</ele><time>2026-03-30T08:18:18Z</time></trkpt><trkpt lat="41.99615525017314" lon="1.7141367683352793"><ele>678.0</ele><time>2026-03-30T08:18:19Z</time></trkpt><trkpt lat="41.99600511889759" lon="1.7142424466629098"><ele>678.0</ele><time>2026-03-30T08:18:20Z</time></trkpt><trkpt lat="41.995854677443745" lon="1.714344233561635"><ele>678.0</ele><time>2026-03-30T08:18:21Z</time></trkpt><trkpt lat="41.99569339570676" lon="1.7144400930759267"><ele>675.0</ele><time>2026-03-30T08:18:22Z</time></trkpt><trkpt lat="41.995517647872" lon="1.7144589153446768"><ele>672.0</ele><time>2026-03-30T08:18:23Z</time></trkpt><trkpt lat="41.995354575579" lon="1.7144293422506622"><ele>669.0</ele><time>2026-03-30T08:18:24Z</time></trkpt><trkpt lat="41.99523737843332" lon="1.7143615961594725"><ele>674.5</ele><time>2026-03-30T08:18:25Z</time></trkpt><trkpt lat="41.99516675622003" lon="1.7142508432300019"><ele>680.0</ele><time>2026-03-30T08:18:26Z</time></trkpt><trkpt lat="41.99519131553874" lon="1.7140611319897539"><ele>685.5</ele><time>2026-03-30T08:18:27Z</time></trkpt><trkpt lat="41.9951500523352" lon="1.7139132007662574"><ele>691.0</ele><time>2026-03-30T08:18:28Z</time></trkpt><trkpt lat="41.995092505452774" lon="1.7137746858794471"><ele>691.0</ele><time>2026-03-30T08:18:29Z</time></trkpt><trkpt lat="41.99496543077448" lon="1.713654833295871"><ele>691.0</ele><time>2026-03-30T08:18:30Z</time></trkpt><trkpt lat="41.99480400369562" lon="1.7135473822614569"><ele>691.0</ele><time>2026-03-30T08:18:31Z</time></trkpt><trkpt lat="41.99465462270588" lon="1.7134495189699013"><ele>691.0</ele><time>2026-03-30T08:18:32Z</time></trkpt><trkpt lat="41.99451322206037" lon="1.713376217744773"><ele>691.0</ele><time>2026-03-30T08:18:33Z</time></trkpt><trkpt lat="41.99437844348581" lon="1.7133406407760718"><ele>691.0</ele><time>2026-03-30T08:18:34Z</time></trkpt><trkpt lat="41.99425387105014" lon="1.7133376480553622"><ele>691.0</ele><time>2026-03-30T08:18:35Z</time></trkpt><trkpt lat="41.99414656696905" lon="1.7133146509512318"><ele>688.5999999999999</ele><time>2026-03-30T08:18:36Z</time></trkpt><trkpt lat="41.99405784539445" lon="1.713256362594876"><ele>686.2</ele><time>2026-03-30T08:18:37Z</time></trkpt><trkpt lat="41.99400701916288" lon="1.7131350370146354"><ele>683.8</ele><time>2026-03-30T08:18:38Z</time></trkpt><trkpt lat="41.994031870896244" lon="1.7129899581605788"><ele>681.4000000000001</ele><time>2026-03-30T08:18:39Z</time></trkpt><trkpt lat="41.99409129874847" lon="1.712856683185708"><ele>679.0</ele><time>2026-03-30T08:18:40Z</time></trkpt><trkpt lat="41.994116799454986" lon="1.7126983614282647"><ele>679.0</ele><time>2026-03-30T08:18:41Z</time></trkpt><trkpt lat="41.994092698747636" lon="1.7125372551624838"><ele>679.0</ele><time>2026-03-30T08:18:42Z</time></trkpt><trkpt lat="41.99398761581817" lon="1.7124107781226618"><ele>679.0</ele><time>2026-03-30T08:18:43Z</time></trkpt><trkpt lat="41.993859367676215" lon="1.7123102048618675"><ele>679.0</ele><time>2026-03-30T08:18:44Z</time></trkpt><trkpt lat="41.99372789018365" lon="1.7122191211665452"><ele>679.0</ele><time>2026-03-30T08:18:45Z</time></trkpt><trkpt lat="41.99360584541867" lon="1.712158528612995"><ele>679.0</ele><time>2026-03-30T08:18:46Z</time></trkpt><trkpt lat="41.99348904927667" lon="1.7121066459290757"><ele>679.0</ele><time>2026-03-30T08:18:47Z</time></trkpt><trkpt lat="41.993383644021755" lon="1.7120310503437788"><ele>679.0</ele><time>2026-03-30T08:18:48Z</time></trkpt><trkpt lat="41.9932744220629" lon="1.7119173376372663"><ele>677.0</ele><time>2026-03-30T08:18:49Z</time></trkpt><trkpt lat="41.99316946574698" lon="1.7117329956762448"><ele>675.0</ele><time>2026-03-30T08:18:50Z</time></trkpt><trkpt lat="41.99303499440411" lon="1.7115866990938289"><ele>673.0</ele><time>2026-03-30T08:18:51Z</time></trkpt><trkpt lat="41.99291081842015" lon="1.711442945757279"><ele>673.0</ele><time>2026-03-30T08:18:52Z</time></trkpt><trkpt lat="41.992783163174956" lon="1.7113290716331875"><ele>673.0</ele><time>2026-03-30T08:18:53Z</time></trkpt><trkpt lat="41.992665613926086" lon="1.7112065408309336"><ele>673.0</ele><time>2026-03-30T08:18:54Z</time></trkpt><trkpt lat="41.992545675934416" lon="1.7110822269926946"><ele>672.75</ele><time>2026-03-30T08:18:55Z</time></trkpt><trkpt lat="41.99242723412992" lon="1.7109667953703382"><ele>672.5</ele><time>2026-03-30T08:18:56Z</time></trkpt><trkpt lat="41.99230941073083" lon="1.710879991288627"><ele>672.25</ele><time>2026-03-30T08:18:57Z</time></trkpt><trkpt lat="41.99215917635973" lon="1.7108290510318083"><ele>672.0</ele><time>2026-03-30T08:18:58Z</time></trkpt><trkpt lat="41.9919820841448" lon="1.7108318777192124"><ele>672.0</ele><time>2026-03-30T08:18:59Z</time></trkpt><trkpt lat="41.991811225477775" lon="1.7108720404786044"><ele>672.0</ele><time>2026-03-30T08:19:00Z</time></trkpt><trkpt lat="41.9916587983321" lon="1.7109076517541195"><ele>672.0</ele><time>2026-03-30T08:19:01Z</time></trkpt><trkpt lat="41.9915111825368" lon="1.7109245036285912"><ele>670.0</ele><time>2026-03-30T08:19:02Z</time></trkpt><trkpt lat="41.991355749510866" lon="1.710951907059266"><ele>668.0</ele><time>2026-03-30T08:19:03Z</time></trkpt><trkpt lat="41.991190089343604" lon="1.711016645624075"><ele>666.0</ele><time>2026-03-30T08:19:04Z</time></trkpt><trkpt lat="41.99101829029825" lon="1.7111301622700206"><ele>666.3333333333334</ele><time>2026-03-30T08:19:05Z</time></trkpt><trkpt lat="41.990835346083095" lon="1.7112673085442833"><ele>666.6666666666667</ele><time>2026-03-30T08:19:06Z</time></trkpt><trkpt lat="41.990636858811634" lon="1.7114151513934444"><ele>667.0</ele><time>2026-03-30T08:19:07Z</time></trkpt><trkpt lat="41.99044669581091" lon="1.7115555391613864"><ele>667.0</ele><time>2026-03-30T08:19:08Z</time></trkpt><trkpt lat="41.990263304601825" lon="1.7116930099965741"><ele>667.0</ele><time>2026-03-30T08:19:09Z</time></trkpt><trkpt lat="41.99008734140946" lon="1.7118216263760473"><ele>667.0</ele><time>2026-03-30T08:19:10Z</time></trkpt><trkpt lat="41.98991216554595" lon="1.7119467635328651"><ele>667.0</ele><time>2026-03-30T08:19:11Z</time></trkpt><trkpt lat="41.98973754200778" lon="1.7120700555710195"><ele>667.0</ele><time>2026-03-30T08:19:12Z</time></trkpt><trkpt lat="41.98956135817413" lon="1.7121933244233827"><ele>667.0</ele><time>2026-03-30T08:19:13Z</time></trkpt><trkpt lat="41.98938556045836" lon="1.7123197590614496"><ele>667.0</ele><time>2026-03-30T08:19:14Z</time></trkpt><trkpt lat="41.989210487831244" lon="1.7124492829820392"><ele>667.0</ele><time>2026-03-30T08:19:15Z</time></trkpt><trkpt lat="41.98903845070554" lon="1.712573759511376"><ele>667.0</ele><time>2026-03-30T08:19:16Z</time></trkpt><trkpt lat="41.98886452980042" lon="1.712701257433584"><ele>667.3333333333334</ele><time>2026-03-30T08:19:17Z</time></trkpt><trkpt lat="41.98869388630914" lon="1.7128205297949681"><ele>667.6666666666666</ele><time>2026-03-30T08:19:18Z</time></trkpt><trkpt lat="41.98852166030971" lon="1.7129362880863181"><ele>668.0</ele><time>2026-03-30T08:19:19Z</time></trkpt><trkpt lat="41.9883528038103" lon="1.713056248790509"><ele>667.6666666666666</ele><time>2026-03-30T08:19:20Z</time></trkpt><trkpt lat="41.98818081727071" lon="1.7131678419616894"><ele>667.3333333333334</ele><time>2026-03-30T08:19:21Z</time></trkpt><trkpt lat="41.9879956892665" lon="1.713243577739709"><ele>667.0</ele><time>2026-03-30T08:19:22Z</time></trkpt><trkpt lat="41.987819448788564" lon="1.7133567783662857"><ele>667.0</ele><time>2026-03-30T08:19:23Z</time></trkpt><trkpt lat="41.98764251084072" lon="1.7134450674212003"><ele>667.0</ele><time>2026-03-30T08:19:24Z</time></trkpt><trkpt lat="41.987463750499856" lon="1.7135313150261353"><ele>667.0</ele><time>2026-03-30T08:19:25Z</time></trkpt><trkpt lat="41.98728234414718" lon="1.7136114678729393"><ele>663.0</ele><time>2026-03-30T08:19:26Z</time></trkpt><trkpt lat="41.98712097084787" lon="1.7137279053472159"><ele>659.0</ele><time>2026-03-30T08:19:27Z</time></trkpt><trkpt lat="41.98694470552188" lon="1.7138200144031237"><ele>655.0</ele><time>2026-03-30T08:19:28Z</time></trkpt><trkpt lat="41.986757173189886" lon="1.71386907584645"><ele>652.6666666666667</ele><time>2026-03-30T08:19:29Z</time></trkpt><trkpt lat="41.98657021797392" lon="1.7139080424593165"><ele>650.3333333333334</ele><time>2026-03-30T08:19:30Z</time></trkpt><trkpt lat="41.98637721618294" lon="1.713936155866835"><ele>648.0</ele><time>2026-03-30T08:19:31Z</time></trkpt><trkpt lat="41.98618585697537" lon="1.7139812089203328"><ele>648.0</ele><time>2026-03-30T08:19:32Z</time></trkpt><trkpt lat="41.98599735450469" lon="1.7140040725762449"><ele>648.0</ele><time>2026-03-30T08:19:33Z</time></trkpt><trkpt lat="41.98581605722612" lon="1.7140283367590663"><ele>648.0</ele><time>2026-03-30T08:19:34Z</time></trkpt><trkpt lat="41.98562934773338" lon="1.7140529656493206"><ele>649.0</ele><time>2026-03-30T08:19:35Z</time></trkpt><trkpt lat="41.98544103406624" lon="1.714075144052486"><ele>650.0</ele><time>2026-03-30T08:19:36Z</time></trkpt><trkpt lat="41.985250043898645" lon="1.7141001232800752"><ele>651.0</ele><time>2026-03-30T08:19:37Z</time></trkpt><trkpt lat="41.98505474579047" lon="1.714126959904144"><ele>650.3333333333334</ele><time>2026-03-30T08:19:38Z</time></trkpt><trkpt lat="41.98487333591299" lon="1.714156897595918"><ele>649.6666666666667</ele><time>2026-03-30T08:19:39Z</time></trkpt><trkpt lat="41.984700993375014" lon="1.71418082561976"><ele>649.0</ele><time>2026-03-30T08:19:40Z</time></trkpt><trkpt lat="41.98453111677169" lon="1.714162130374193"><ele>649.0</ele><time>2026-03-30T08:19:41Z</time></trkpt><trkpt lat="41.984359647683796" lon="1.7140914320484306"><ele>649.0</ele><time>2026-03-30T08:19:42Z</time></trkpt><trkpt lat="41.98416963491958" lon="1.7139937260678504"><ele>649.0</ele><time>2026-03-30T08:19:43Z</time></trkpt><trkpt lat="41.98400046306903" lon="1.7139067347321613"><ele>646.0</ele><time>2026-03-30T08:19:44Z</time></trkpt><trkpt lat="41.983842870607404" lon="1.713820870818466"><ele>643.0</ele><time>2026-03-30T08:19:45Z</time></trkpt><trkpt lat="41.98370740872297" lon="1.7137197830460866"><ele>640.0</ele><time>2026-03-30T08:19:46Z</time></trkpt><trkpt lat="41.98360165973686" lon="1.7135828477183939"><ele>640.3333333333334</ele><time>2026-03-30T08:19:47Z</time></trkpt><trkpt lat="41.983525906070774" lon="1.713408185130328"><ele>640.6666666666666</ele><time>2026-03-30T08:19:48Z</time></trkpt><trkpt lat="41.98347481513855" lon="1.7131981603817472"><ele>641.0</ele><time>2026-03-30T08:19:49Z</time></trkpt><trkpt lat="41.983423934296134" lon="1.7129754502638588"><ele>641.0</ele><time>2026-03-30T08:19:50Z</time></trkpt><trkpt lat="41.98334926456115" lon="1.712768354006577"><ele>641.0</ele><time>2026-03-30T08:19:51Z</time></trkpt><trkpt lat="41.9832358336531" lon="1.7125800804474274"><ele>641.0</ele><time>2026-03-30T08:19:52Z</time></trkpt><trkpt lat="41.98305441646606" lon="1.7124347362480723"><ele>638.0</ele><time>2026-03-30T08:19:53Z</time></trkpt><trkpt lat="41.98287242416125" lon="1.7122694147100916"><ele>635.0</ele><time>2026-03-30T08:19:54Z</time></trkpt><trkpt lat="41.98271555739891" lon="1.7121262229397636"><ele>632.0</ele><time>2026-03-30T08:19:55Z</time></trkpt><trkpt lat="41.98256250306972" lon="1.7119914261633893"><ele>630.6666666666666</ele><time>2026-03-30T08:19:56Z</time></trkpt><trkpt lat="41.982405556220876" lon="1.7118546344227616"><ele>629.3333333333334</ele><time>2026-03-30T08:19:57Z</time></trkpt><trkpt lat="41.98224460630969" lon="1.7117125072526171"><ele>628.0</ele><time>2026-03-30T08:19:58Z</time></trkpt><trkpt lat="41.982073325894675" lon="1.711581557319441"><ele>628.0</ele><time>2026-03-30T08:19:59Z</time></trkpt><trkpt lat="41.98192467616116" lon="1.7113986962865728"><ele>628.0</ele><time>2026-03-30T08:20:00Z</time></trkpt><trkpt lat="41.981820381215535" lon="1.7111840534410467"><ele>628.0</ele><time>2026-03-30T08:20:01Z</time></trkpt><trkpt lat="41.98172123027342" lon="1.7109576333843992"><ele>630.3333333333334</ele><time>2026-03-30T08:20:02Z</time></trkpt><trkpt lat="41.98160485148815" lon="1.7107630075265505"><ele>632.6666666666666</ele><time>2026-03-30T08:20:03Z</time></trkpt><trkpt lat="41.98148710854961" lon="1.710575403406379"><ele>635.0</ele><time>2026-03-30T08:20:04Z</time></trkpt><trkpt lat="41.981375826633325" lon="1.7104062508928817"><ele>635.0</ele><time>2026-03-30T08:20:05Z</time></trkpt><trkpt lat="41.98127192662701" lon="1.7102410741806562"><ele>635.0</ele><time>2026-03-30T08:20:06Z</time></trkpt><trkpt lat="41.98117548152712" lon="1.7100901331402782"><ele>635.0</ele><time>2026-03-30T08:20:07Z</time></trkpt><trkpt lat="41.981076291797315" lon="1.709965479071729"><ele>635.0</ele><time>2026-03-30T08:20:08Z</time></trkpt><trkpt lat="41.98095823803479" lon="1.709893179687622"><ele>633.0</ele><time>2026-03-30T08:20:09Z</time></trkpt><trkpt lat="41.98081555682852" lon="1.7098622643885415"><ele>631.0</ele><time>2026-03-30T08:20:10Z</time></trkpt><trkpt lat="41.980654878533755" lon="1.7098487051040498"><ele>629.0</ele><time>2026-03-30T08:20:11Z</time></trkpt><trkpt lat="41.980486113138085" lon="1.7098424350861434"><ele>629.0</ele><time>2026-03-30T08:20:12Z</time></trkpt><trkpt lat="41.980309086276186" lon="1.7098374803228704"><ele>629.0</ele><time>2026-03-30T08:20:13Z</time></trkpt><trkpt lat="41.98013592389868" lon="1.7097963828952936"><ele>629.0</ele><time>2026-03-30T08:20:14Z</time></trkpt><trkpt lat="41.979959178229485" lon="1.7097499458630245"><ele>627.0</ele><time>2026-03-30T08:20:15Z</time></trkpt><trkpt lat="41.97977789453993" lon="1.7096906547231903"><ele>625.0</ele><time>2026-03-30T08:20:16Z</time></trkpt><trkpt lat="41.979599689567145" lon="1.709630680280956"><ele>623.0</ele><time>2026-03-30T08:20:17Z</time></trkpt><trkpt lat="41.979422299764686" lon="1.7095694584614993"><ele>623.0</ele><time>2026-03-30T08:20:18Z</time></trkpt><trkpt lat="41.979240647497335" lon="1.7095055134695183"><ele>623.0</ele><time>2026-03-30T08:20:19Z</time></trkpt><trkpt lat="41.97904777144902" lon="1.7094625398939485"><ele>623.0</ele><time>2026-03-30T08:20:20Z</time></trkpt><trkpt lat="41.97885526746938" lon="1.7094512319584383"><ele>621.0</ele><time>2026-03-30T08:20:21Z</time></trkpt><trkpt lat="41.978667674836935" lon="1.70939965223551"><ele>619.0</ele><time>2026-03-30T08:20:22Z</time></trkpt><trkpt lat="41.978480352603825" lon="1.7093726063473036"><ele>617.0</ele><time>2026-03-30T08:20:23Z</time></trkpt><trkpt lat="41.97830308084831" lon="1.7093445915151586"><ele>616.3333333333333</ele><time>2026-03-30T08:20:24Z</time></trkpt><trkpt lat="41.97813466193788" lon="1.7093000138432957"><ele>615.6666666666666</ele><time>2026-03-30T08:20:25Z</time></trkpt><trkpt lat="41.977981646148464" lon="1.7091759971888505"><ele>615.0</ele><time>2026-03-30T08:20:26Z</time></trkpt><trkpt lat="41.97782530772551" lon="1.7090296435263128"><ele>615.0</ele><time>2026-03-30T08:20:27Z</time></trkpt><trkpt lat="41.977667786111894" lon="1.7088718668642342"><ele>615.0</ele><time>2026-03-30T08:20:28Z</time></trkpt><trkpt lat="41.97749758106088" lon="1.7087094372064189"><ele>615.0</ele><time>2026-03-30T08:20:29Z</time></trkpt><trkpt lat="41.97732407864818" lon="1.708555256466915"><ele>612.6666666666666</ele><time>2026-03-30T08:20:30Z</time></trkpt><trkpt lat="41.977158619408" lon="1.7084094731506088"><ele>610.3333333333333</ele><time>2026-03-30T08:20:31Z</time></trkpt><trkpt lat="41.97698794065782" lon="1.7082590909857978"><ele>608.0</ele><time>2026-03-30T08:20:32Z</time></trkpt><trkpt lat="41.97683053394848" lon="1.708120404009537"><ele>608.6666666666666</ele><time>2026-03-30T08:20:33Z</time></trkpt><trkpt lat="41.97665558727657" lon="1.7079658579590702"><ele>609.3333333333334</ele><time>2026-03-30T08:20:34Z</time></trkpt><trkpt lat="41.97649096096521" lon="1.7078184713215847"><ele>610.0</ele><time>2026-03-30T08:20:35Z</time></trkpt><trkpt lat="41.97633329496929" lon="1.7076737220109166"><ele>608.0</ele><time>2026-03-30T08:20:36Z</time></trkpt><trkpt lat="41.97617836659226" lon="1.7075259787752495"><ele>606.0</ele><time>2026-03-30T08:20:37Z</time></trkpt><trkpt lat="41.97602676430724" lon="1.7073796334578544"><ele>604.0</ele><time>2026-03-30T08:20:38Z</time></trkpt><trkpt lat="41.97586868412192" lon="1.7072443723619768"><ele>603.6666666666667</ele><time>2026-03-30T08:20:39Z</time></trkpt><trkpt lat="41.97568350322901" lon="1.7071496027899566"><ele>603.3333333333334</ele><time>2026-03-30T08:20:40Z</time></trkpt><trkpt lat="41.97548169548797" lon="1.707037659456709"><ele>603.0</ele><time>2026-03-30T08:20:41Z</time></trkpt><trkpt lat="41.9752766581993" lon="1.7069478103774012"><ele>601.0</ele><time>2026-03-30T08:20:42Z</time></trkpt><trkpt lat="41.97508190471744" lon="1.7068717266268714"><ele>599.0</ele><time>2026-03-30T08:20:43Z</time></trkpt><trkpt lat="41.974894194274874" lon="1.7067963046216128"><ele>597.0</ele><time>2026-03-30T08:20:44Z</time></trkpt><trkpt lat="41.97471059745672" lon="1.7067141318946009"><ele>596.3333333333334</ele><time>2026-03-30T08:20:45Z</time></trkpt><trkpt lat="41.97453780217378" lon="1.7066423367480745"><ele>595.6666666666667</ele><time>2026-03-30T08:20:46Z</time></trkpt><trkpt lat="41.974370134781346" lon="1.7065892810695764"><ele>595.0</ele><time>2026-03-30T08:20:47Z</time></trkpt><trkpt lat="41.974191505332456" lon="1.706572907445439"><ele>595.3333333333334</ele><time>2026-03-30T08:20:48Z</time></trkpt><trkpt lat="41.97401586288452" lon="1.7066112706250829"><ele>595.6666666666666</ele><time>2026-03-30T08:20:49Z</time></trkpt><trkpt lat="41.97385831164914" lon="1.706676975158005"><ele>596.0</ele><time>2026-03-30T08:20:50Z</time></trkpt><trkpt lat="41.973719062912046" lon="1.7067490460792756"><ele>596.0</ele><time>2026-03-30T08:20:51Z</time></trkpt><trkpt lat="41.97359061487924" lon="1.7068071248985563"><ele>596.0</ele><time>2026-03-30T08:20:52Z</time></trkpt><trkpt lat="41.97346128546751" lon="1.706791298014889"><ele>596.0</ele><time>2026-03-30T08:20:53Z</time></trkpt><trkpt lat="41.9733496487381" lon="1.7066856761999571"><ele>596.0</ele><time>2026-03-30T08:20:54Z</time></trkpt><trkpt lat="41.97323167637689" lon="1.70655996865725"><ele>596.0</ele><time>2026-03-30T08:20:55Z</time></trkpt><trkpt lat="41.97313161029944" lon="1.7063781637674331"><ele>596.0</ele><time>2026-03-30T08:20:56Z</time></trkpt><trkpt lat="41.97305272322178" lon="1.7061652116286667"><ele>596.0</ele><time>2026-03-30T08:20:57Z</time></trkpt><trkpt lat="41.9729854534843" lon="1.7059600964912023"><ele>596.0</ele><time>2026-03-30T08:20:58Z</time></trkpt><trkpt lat="41.97291673301373" lon="1.70577707345285"><ele>596.0</ele><time>2026-03-30T08:20:59Z</time></trkpt><trkpt lat="41.9728057042384" lon="1.705634814977772"><ele>596.0</ele><time>2026-03-30T08:21:00Z</time></trkpt><trkpt lat="41.97268115156114" lon="1.7055092590502547"><ele>596.0</ele><time>2026-03-30T08:21:01Z</time></trkpt><trkpt lat="41.972525463869616" lon="1.705401156189837"><ele>596.0</ele><time>2026-03-30T08:21:02Z</time></trkpt><trkpt lat="41.97236772376473" lon="1.7052944278575581"><ele>596.0</ele><time>2026-03-30T08:21:03Z</time></trkpt><trkpt lat="41.97222176099992" lon="1.705201598410316"><ele>595.3333333333333</ele><time>2026-03-30T08:21:04Z</time></trkpt><trkpt lat="41.97204804709152" lon="1.7051480320471595"><ele>594.6666666666666</ele><time>2026-03-30T08:21:05Z</time></trkpt><trkpt lat="41.97188987320777" lon="1.7051464072012794"><ele>594.0</ele><time>2026-03-30T08:21:06Z</time></trkpt><trkpt lat="41.9717337565227" lon="1.7051649269835059"><ele>593.25</ele><time>2026-03-30T08:21:07Z</time></trkpt><trkpt lat="41.97159713070603" lon="1.7051722259522248"><ele>592.5</ele><time>2026-03-30T08:21:08Z</time></trkpt><trkpt lat="41.97146672183338" lon="1.7051716928821612"><ele>591.75</ele><time>2026-03-30T08:21:09Z</time></trkpt><trkpt lat="41.9713565543266" lon="1.7051219456196611"><ele>591.0</ele><time>2026-03-30T08:21:10Z</time></trkpt><trkpt lat="41.97125041267301" lon="1.7050656205192787"><ele>591.0</ele><time>2026-03-30T08:21:11Z</time></trkpt><trkpt lat="41.971131527931604" lon="1.7049741362487774"><ele>591.0</ele><time>2026-03-30T08:21:12Z</time></trkpt><trkpt lat="41.971013663643525" lon="1.7048545320136912"><ele>591.0</ele><time>2026-03-30T08:21:13Z</time></trkpt><trkpt lat="41.97087347372908" lon="1.704753037531046"><ele>591.0</ele><time>2026-03-30T08:21:14Z</time></trkpt><trkpt lat="41.97075119057617" lon="1.7046170161683485"><ele>591.0</ele><time>2026-03-30T08:21:15Z</time></trkpt><trkpt lat="41.970625615719534" lon="1.7044903560783133"><ele>591.0</ele><time>2026-03-30T08:21:16Z</time></trkpt><trkpt lat="41.97050212942182" lon="1.7043604848417593"><ele>591.0</ele><time>2026-03-30T08:21:17Z</time></trkpt><trkpt lat="41.970376832385895" lon="1.704229396924721"><ele>590.3333333333334</ele><time>2026-03-30T08:21:18Z</time></trkpt><trkpt lat="41.970247017729065" lon="1.70411653511673"><ele>589.6666666666667</ele><time>2026-03-30T08:21:19Z</time></trkpt><trkpt lat="41.970111750839536" lon="1.7040200853451029"><ele>589.0</ele><time>2026-03-30T08:21:20Z</time></trkpt><trkpt lat="41.96997042512876" lon="1.7039390064771351"><ele>589.0</ele><time>2026-03-30T08:21:21Z</time></trkpt><trkpt lat="41.969814782923" lon="1.703868854856893"><ele>589.0</ele><time>2026-03-30T08:21:22Z</time></trkpt><trkpt lat="41.969637183693656" lon="1.7038034639487953"><ele>589.0</ele><time>2026-03-30T08:21:23Z</time></trkpt><trkpt lat="41.96944529003623" lon="1.703743133615983"><ele>589.0</ele><time>2026-03-30T08:21:24Z</time></trkpt><trkpt lat="41.969249152407315" lon="1.703682917537608"><ele>589.0</ele><time>2026-03-30T08:21:25Z</time></trkpt><trkpt lat="41.96906448435561" lon="1.703630094771037"><ele>589.0</ele><time>2026-03-30T08:21:26Z</time></trkpt><trkpt lat="41.96888401293846" lon="1.7035791948392456"><ele>586.3333333333334</ele><time>2026-03-30T08:21:27Z</time></trkpt><trkpt lat="41.96870836341859" lon="1.7035274747171667"><ele>583.6666666666666</ele><time>2026-03-30T08:21:28Z</time></trkpt><trkpt lat="41.9685330430156" lon="1.7034682571997315"><ele>581.0</ele><time>2026-03-30T08:21:29Z</time></trkpt><trkpt lat="41.96834574376402" lon="1.7034188409857012"><ele>579.3333333333333</ele><time>2026-03-30T08:21:30Z</time></trkpt><trkpt lat="41.96815887870053" lon="1.7033618880436492"><ele>577.6666666666666</ele><time>2026-03-30T08:21:31Z</time></trkpt><trkpt lat="41.96796037228131" lon="1.7033013900431029"><ele>576.0</ele><time>2026-03-30T08:21:32Z</time></trkpt><trkpt lat="41.967746729318435" lon="1.7032354076455163"><ele>576.0</ele><time>2026-03-30T08:21:33Z</time></trkpt><trkpt lat="41.96753992639931" lon="1.7031779448782174"><ele>576.0</ele><time>2026-03-30T08:21:34Z</time></trkpt><trkpt lat="41.96734233513516" lon="1.703116495584615"><ele>576.0</ele><time>2026-03-30T08:21:35Z</time></trkpt><trkpt lat="41.967155115988504" lon="1.7030573511948826"><ele>575.6666666666666</ele><time>2026-03-30T08:21:36Z</time></trkpt><trkpt lat="41.96697432767921" lon="1.7030011584760691"><ele>575.3333333333333</ele><time>2026-03-30T08:21:37Z</time></trkpt><trkpt lat="41.96679251739147" lon="1.7029456771771694"><ele>575.0</ele><time>2026-03-30T08:21:38Z</time></trkpt><trkpt lat="41.96659103187321" lon="1.7028884545440246"><ele>576.0</ele><time>2026-03-30T08:21:39Z</time></trkpt><trkpt lat="41.96638543535673" lon="1.7028260546634075"><ele>577.0</ele><time>2026-03-30T08:21:40Z</time></trkpt><trkpt lat="41.96617681684941" lon="1.7027639886376933"><ele>578.0</ele><time>2026-03-30T08:21:41Z</time></trkpt><trkpt lat="41.96597005725905" lon="1.7026989754564519"><ele>577.0</ele><time>2026-03-30T08:21:42Z</time></trkpt><trkpt lat="41.96576153923055" lon="1.702637728096868"><ele>576.0</ele><time>2026-03-30T08:21:43Z</time></trkpt><trkpt lat="41.9655498383174" lon="1.702576861132969"><ele>575.0</ele><time>2026-03-30T08:21:44Z</time></trkpt><trkpt lat="41.96533566006592" lon="1.7025076688306782"><ele>575.0</ele><time>2026-03-30T08:21:45Z</time></trkpt><trkpt lat="41.96512450808413" lon="1.7024379763508675"><ele>575.0</ele><time>2026-03-30T08:21:46Z</time></trkpt><trkpt lat="41.96489865837384" lon="1.7023710180577754"><ele>575.0</ele><time>2026-03-30T08:21:47Z</time></trkpt><trkpt lat="41.964686038847915" lon="1.7023072385457372"><ele>575.3333333333333</ele><time>2026-03-30T08:21:48Z</time></trkpt><trkpt lat="41.964476009617904" lon="1.7022421773750915"><ele>575.6666666666666</ele><time>2026-03-30T08:21:49Z</time></trkpt><trkpt lat="41.96425769607759" lon="1.7021753726921371"><ele>576.0</ele><time>2026-03-30T08:21:50Z</time></trkpt><trkpt lat="41.96404227102391" lon="1.7021076799695283"><ele>576.6666666666666</ele><time>2026-03-30T08:21:51Z</time></trkpt><trkpt lat="41.96383590782659" lon="1.7020457772664803"><ele>577.3333333333333</ele><time>2026-03-30T08:21:52Z</time></trkpt><trkpt lat="41.963625980406405" lon="1.701982060598173"><ele>578.0</ele><time>2026-03-30T08:21:53Z</time></trkpt><trkpt lat="41.963413636175254" lon="1.7019100482198501"><ele>578.3333333333333</ele><time>2026-03-30T08:21:54Z</time></trkpt><trkpt lat="41.963201256748846" lon="1.701848013864061"><ele>578.6666666666666</ele><time>2026-03-30T08:21:55Z</time></trkpt><trkpt lat="41.96298860122727" lon="1.701785964779003"><ele>579.0</ele><time>2026-03-30T08:21:56Z</time></trkpt><trkpt lat="41.962777424284525" lon="1.7017233958248152"><ele>579.0</ele><time>2026-03-30T08:21:57Z</time></trkpt><trkpt lat="41.962565907661705" lon="1.701658290524507"><ele>579.0</ele><time>2026-03-30T08:21:58Z</time></trkpt><trkpt lat="41.96236334617459" lon="1.7016018272509559"><ele>579.0</ele><time>2026-03-30T08:21:59Z</time></trkpt><trkpt lat="41.962169109638566" lon="1.7015445730430494"><ele>579.6666666666666</ele><time>2026-03-30T08:22:00Z</time></trkpt><trkpt lat="41.96197791134284" lon="1.701486992166637"><ele>580.3333333333333</ele><time>2026-03-30T08:22:01Z</time></trkpt><trkpt lat="41.96178551577928" lon="1.7014275883462275"><ele>581.0</ele><time>2026-03-30T08:22:02Z</time></trkpt><trkpt lat="41.96158214045511" lon="1.7013625642156718"><ele>582.0</ele><time>2026-03-30T08:22:03Z</time></trkpt><trkpt lat="41.96137806832945" lon="1.7012996720129896"><ele>583.0</ele><time>2026-03-30T08:22:04Z</time></trkpt><trkpt lat="41.96118084627484" lon="1.701240508536252"><ele>584.0</ele><time>2026-03-30T08:22:05Z</time></trkpt><trkpt lat="41.960987469344204" lon="1.7011832605425938"><ele>584.6666666666666</ele><time>2026-03-30T08:22:06Z</time></trkpt><trkpt lat="41.96079276573845" lon="1.7011235544893961"><ele>585.3333333333334</ele><time>2026-03-30T08:22:07Z</time></trkpt><trkpt lat="41.96060528101121" lon="1.701063948348913"><ele>586.0</ele><time>2026-03-30T08:22:08Z</time></trkpt><trkpt lat="41.96042647577236" lon="1.7010131386662677"><ele>586.0</ele><time>2026-03-30T08:22:09Z</time></trkpt><trkpt lat="41.96025446752742" lon="1.700962670520602"><ele>586.0</ele><time>2026-03-30T08:22:10Z</time></trkpt><trkpt lat="41.960075671373204" lon="1.7009121559747014"><ele>586.0</ele><time>2026-03-30T08:22:11Z</time></trkpt><trkpt lat="41.95988464768831" lon="1.7008871870944395"><ele>587.0</ele><time>2026-03-30T08:22:12Z</time></trkpt><trkpt lat="41.95969811984462" lon="1.7009226607240873"><ele>588.0</ele><time>2026-03-30T08:22:13Z</time></trkpt><trkpt lat="41.95949878423831" lon="1.701031317301102"><ele>589.0</ele><time>2026-03-30T08:22:14Z</time></trkpt><trkpt lat="41.95929364910869" lon="1.7011088850831544"><ele>590.3333333333334</ele><time>2026-03-30T08:22:15Z</time></trkpt><trkpt lat="41.95910504285671" lon="1.7011645726465439"><ele>591.6666666666666</ele><time>2026-03-30T08:22:16Z</time></trkpt><trkpt lat="41.958927314352636" lon="1.7012096096390146"><ele>593.0</ele><time>2026-03-30T08:22:17Z</time></trkpt><trkpt lat="41.95875843867348" lon="1.701253914199113"><ele>593.0</ele><time>2026-03-30T08:22:18Z</time></trkpt><trkpt lat="41.958593168558004" lon="1.7013008113310553"><ele>593.0</ele><time>2026-03-30T08:22:19Z</time></trkpt><trkpt lat="41.95842400186094" lon="1.7013494571162813"><ele>593.0</ele><time>2026-03-30T08:22:20Z</time></trkpt><trkpt lat="41.95825576404796" lon="1.701395831690504"><ele>593.0</ele><time>2026-03-30T08:22:21Z</time></trkpt><trkpt lat="41.95809126442237" lon="1.7014521435716259"><ele>593.0</ele><time>2026-03-30T08:22:22Z</time></trkpt><trkpt lat="41.95793466056414" lon="1.7015461853209601"><ele>593.0</ele><time>2026-03-30T08:22:23Z</time></trkpt><trkpt lat="41.95777889191998" lon="1.7016817322347741"><ele>593.0</ele><time>2026-03-30T08:22:24Z</time></trkpt><trkpt lat="41.957619896315734" lon="1.7018346805584659"><ele>593.0</ele><time>2026-03-30T08:22:25Z</time></trkpt><trkpt lat="41.95746120787363" lon="1.701983003117441"><ele>593.0</ele><time>2026-03-30T08:22:26Z</time></trkpt><trkpt lat="41.95730550909471" lon="1.7021250274787918"><ele>592.0</ele><time>2026-03-30T08:22:27Z</time></trkpt><trkpt lat="41.957152560791705" lon="1.7022617356706062"><ele>591.0</ele><time>2026-03-30T08:22:28Z</time></trkpt><trkpt lat="41.957003128037435" lon="1.7023940697143214"><ele>590.0</ele><time>2026-03-30T08:22:29Z</time></trkpt><trkpt lat="41.95685588900441" lon="1.7025295640338622"><ele>590.0</ele><time>2026-03-30T08:22:30Z</time></trkpt><trkpt lat="41.95671171260136" lon="1.702663805714109"><ele>590.0</ele><time>2026-03-30T08:22:31Z</time></trkpt><trkpt lat="41.95656979193044" lon="1.702796501271742"><ele>590.0</ele><time>2026-03-30T08:22:32Z</time></trkpt><trkpt lat="41.95643548281686" lon="1.7029172284409781"><ele>590.0</ele><time>2026-03-30T08:22:33Z</time></trkpt><trkpt lat="41.956309206753126" lon="1.7030307267869076"><ele>590.0</ele><time>2026-03-30T08:22:34Z</time></trkpt><trkpt lat="41.95618442255777" lon="1.7031329421130499"><ele>590.0</ele><time>2026-03-30T08:22:35Z</time></trkpt><trkpt lat="41.956040908365836" lon="1.7031898742809417"><ele>590.0</ele><time>2026-03-30T08:22:36Z</time></trkpt><trkpt lat="41.955877916851726" lon="1.7031658264509197"><ele>589.6666666666666</ele><time>2026-03-30T08:22:37Z</time></trkpt><trkpt lat="41.955703954714075" lon="1.7030843010155925"><ele>589.3333333333334</ele><time>2026-03-30T08:22:38Z</time></trkpt><trkpt lat="41.95554598874014" lon="1.7029868129344365"><ele>589.0</ele><time>2026-03-30T08:22:39Z</time></trkpt><trkpt lat="41.955401047269795" lon="1.702900109920088"><ele>589.0</ele><time>2026-03-30T08:22:40Z</time></trkpt><trkpt lat="41.955233847306026" lon="1.70281822978675"><ele>589.0</ele><time>2026-03-30T08:22:41Z</time></trkpt><trkpt lat="41.95505091185562" lon="1.7027357424277603"><ele>589.0</ele><time>2026-03-30T08:22:42Z</time></trkpt><trkpt lat="41.95487939710221" lon="1.7026544995288662"><ele>589.0</ele><time>2026-03-30T08:22:43Z</time></trkpt><trkpt lat="41.95471231440604" lon="1.702575532548002"><ele>589.0</ele><time>2026-03-30T08:22:44Z</time></trkpt><trkpt lat="41.95454246699288" lon="1.7024927675728736"><ele>589.0</ele><time>2026-03-30T08:22:45Z</time></trkpt><trkpt lat="41.95437259096519" lon="1.7024162639213485"><ele>589.0</ele><time>2026-03-30T08:22:46Z</time></trkpt><trkpt lat="41.95421208894107" lon="1.7023336767714536"><ele>589.0</ele><time>2026-03-30T08:22:47Z</time></trkpt><trkpt lat="41.95404893725416" lon="1.7022547541475923"><ele>589.0</ele><time>2026-03-30T08:22:48Z</time></trkpt><trkpt lat="41.953883213343005" lon="1.7021961556635006"><ele>592.0</ele><time>2026-03-30T08:22:49Z</time></trkpt><trkpt lat="41.9537192518853" lon="1.7021536268416573"><ele>595.0</ele><time>2026-03-30T08:22:50Z</time></trkpt><trkpt lat="41.95354556390568" lon="1.7021199004212777"><ele>598.0</ele><time>2026-03-30T08:22:51Z</time></trkpt><trkpt lat="41.95336589645057" lon="1.7020900372428462"><ele>598.3333333333334</ele><time>2026-03-30T08:22:52Z</time></trkpt><trkpt lat="41.95318331082529" lon="1.7020563347851627"><ele>598.6666666666666</ele><time>2026-03-30T08:22:53Z</time></trkpt><trkpt lat="41.95299525856117" lon="1.7020185654923288"><ele>599.0</ele><time>2026-03-30T08:22:54Z</time></trkpt><trkpt lat="41.952806416748984" lon="1.7019783003723388"><ele>599.0</ele><time>2026-03-30T08:22:55Z</time></trkpt><trkpt lat="41.952616207318215" lon="1.7019401467269752"><ele>599.0</ele><time>2026-03-30T08:22:56Z</time></trkpt><trkpt lat="41.95242727022092" lon="1.7019008434841916"><ele>599.0</ele><time>2026-03-30T08:22:57Z</time></trkpt><trkpt lat="41.95224236812865" lon="1.7018663837695964"><ele>597.3333333333333</ele><time>2026-03-30T08:22:58Z</time></trkpt><trkpt lat="41.95206717405325" lon="1.7018254624603886"><ele>595.6666666666666</ele><time>2026-03-30T08:22:59Z</time></trkpt><trkpt lat="41.95189962598771" lon="1.701755104999512"><ele>594.0</ele><time>2026-03-30T08:23:00Z</time></trkpt><trkpt lat="41.951744939683095" lon="1.701648063705416"><ele>595.6666666666666</ele><time>2026-03-30T08:23:01Z</time></trkpt><trkpt lat="41.95160534241185" lon="1.7015028680946407"><ele>597.3333333333333</ele><time>2026-03-30T08:23:02Z</time></trkpt><trkpt lat="41.95148477448439" lon="1.7013314630534202"><ele>599.0</ele><time>2026-03-30T08:23:03Z</time></trkpt><trkpt lat="41.951375528983654" lon="1.7011551147266861"><ele>599.6666666666666</ele><time>2026-03-30T08:23:04Z</time></trkpt><trkpt lat="41.95125959785801" lon="1.7009883266457677"><ele>600.3333333333334</ele><time>2026-03-30T08:23:05Z</time></trkpt><trkpt lat="41.95113541780993" lon="1.7008312164312447"><ele>601.0</ele><time>2026-03-30T08:23:06Z</time></trkpt><trkpt lat="41.950981082664406" lon="1.7006782976247639"><ele>603.0</ele><time>2026-03-30T08:23:07Z</time></trkpt><trkpt lat="41.95079171437192" lon="1.7005616254294278"><ele>605.0</ele><time>2026-03-30T08:23:08Z</time></trkpt><trkpt lat="41.95059250939716" lon="1.7004847685969602"><ele>607.0</ele><time>2026-03-30T08:23:09Z</time></trkpt><trkpt lat="41.950408014758594" lon="1.700405111720596"><ele>607.0</ele><time>2026-03-30T08:23:10Z</time></trkpt><trkpt lat="41.95022909684685" lon="1.7003242470595936"><ele>607.0</ele><time>2026-03-30T08:23:11Z</time></trkpt><trkpt lat="41.95006314161701" lon="1.7002379399009315"><ele>607.0</ele><time>2026-03-30T08:23:12Z</time></trkpt><trkpt lat="41.949892610780815" lon="1.7001506626284748"><ele>607.3333333333334</ele><time>2026-03-30T08:23:13Z</time></trkpt><trkpt lat="41.94971973222653" lon="1.700062208167293"><ele>607.6666666666666</ele><time>2026-03-30T08:23:14Z</time></trkpt><trkpt lat="41.949541719171556" lon="1.699976413746592"><ele>608.0</ele><time>2026-03-30T08:23:15Z</time></trkpt><trkpt lat="41.949359044781446" lon="1.6998864209938513"><ele>605.3333333333333</ele><time>2026-03-30T08:23:16Z</time></trkpt><trkpt lat="41.94917199489628" lon="1.6997932964809581"><ele>602.6666666666666</ele><time>2026-03-30T08:23:17Z</time></trkpt><trkpt lat="41.948985277454575" lon="1.6996934514949822"><ele>600.0</ele><time>2026-03-30T08:23:18Z</time></trkpt><trkpt lat="41.948786952855315" lon="1.699588485106282"><ele>600.0</ele><time>2026-03-30T08:23:19Z</time></trkpt><trkpt lat="41.94857113045078" lon="1.6994822336986959"><ele>600.0</ele><time>2026-03-30T08:23:20Z</time></trkpt><trkpt lat="41.94835763416647" lon="1.699378395972236"><ele>598.0</ele><time>2026-03-30T08:23:21Z</time></trkpt><trkpt lat="41.94814980117332" lon="1.6992209682044286"><ele>596.0</ele><time>2026-03-30T08:23:22Z</time></trkpt><trkpt lat="41.947941862177565" lon="1.6991203420551748"><ele>596.0</ele><time>2026-03-30T08:23:23Z</time></trkpt><trkpt lat="41.947740041744375" lon="1.6990242562808284"><ele>596.0</ele><time>2026-03-30T08:23:24Z</time></trkpt><trkpt lat="41.947547341593946" lon="1.698933201211709"><ele>596.0</ele><time>2026-03-30T08:23:25Z</time></trkpt><trkpt lat="41.947353681875335" lon="1.6988426381648427"><ele>595.3333333333333</ele><time>2026-03-30T08:23:26Z</time></trkpt><trkpt lat="41.94715591235761" lon="1.698747752777456"><ele>594.6666666666666</ele><time>2026-03-30T08:23:27Z</time></trkpt><trkpt lat="41.946965401258346" lon="1.6986539767294773"><ele>594.0</ele><time>2026-03-30T08:23:28Z</time></trkpt><trkpt lat="41.94678374751848" lon="1.6985660447467805"><ele>590.6666666666666</ele><time>2026-03-30T08:23:29Z</time></trkpt><trkpt lat="41.946607653068156" lon="1.6984798576064886"><ele>587.3333333333333</ele><time>2026-03-30T08:23:30Z</time></trkpt><trkpt lat="41.94644583916233" lon="1.6983856391072236"><ele>584.0</ele><time>2026-03-30T08:23:31Z</time></trkpt><trkpt lat="41.94629781175759" lon="1.6982813650290398"><ele>584.0</ele><time>2026-03-30T08:23:32Z</time></trkpt><trkpt lat="41.946172289002924" lon="1.6981506373596678"><ele>584.0</ele><time>2026-03-30T08:23:33Z</time></trkpt><trkpt lat="41.94605875042191" lon="1.698000451932817"><ele>584.0</ele><time>2026-03-30T08:23:34Z</time></trkpt><trkpt lat="41.94595376673289" lon="1.6978506326379053"><ele>582.3333333333333</ele><time>2026-03-30T08:23:35Z</time></trkpt><trkpt lat="41.945845026144134" lon="1.6976962878236779"><ele>580.6666666666666</ele><time>2026-03-30T08:23:36Z</time></trkpt><trkpt lat="41.945727902373775" lon="1.6975641583399015"><ele>579.0</ele><time>2026-03-30T08:23:37Z</time></trkpt><trkpt lat="41.94561548835932" lon="1.6974325605181149"><ele>579.0</ele><time>2026-03-30T08:23:38Z</time></trkpt><trkpt lat="41.94546493126125" lon="1.697366879841071"><ele>579.0</ele><time>2026-03-30T08:23:39Z</time></trkpt><trkpt lat="41.945288811017214" lon="1.697393550831343"><ele>579.0</ele><time>2026-03-30T08:23:40Z</time></trkpt><trkpt lat="41.94512464852688" lon="1.6975094691271264"><ele>578.3333333333334</ele><time>2026-03-30T08:23:41Z</time></trkpt><trkpt lat="41.944974948401544" lon="1.697602396773175"><ele>577.6666666666667</ele><time>2026-03-30T08:23:42Z</time></trkpt><trkpt lat="41.944823843579876" lon="1.6976537206177549"><ele>577.0</ele><time>2026-03-30T08:23:43Z</time></trkpt><trkpt lat="41.94468098638693" lon="1.6976996215434903"><ele>577.0</ele><time>2026-03-30T08:23:44Z</time></trkpt><trkpt lat="41.944535093776665" lon="1.6977138344054672"><ele>577.0</ele><time>2026-03-30T08:23:45Z</time></trkpt><trkpt lat="41.94438037570392" lon="1.6977098509104684"><ele>577.0</ele><time>2026-03-30T08:23:46Z</time></trkpt><trkpt lat="41.94419258735325" lon="1.6977133479307271"><ele>577.6666666666667</ele><time>2026-03-30T08:23:47Z</time></trkpt><trkpt lat="41.94400773175278" lon="1.6976992234934092"><ele>578.3333333333334</ele><time>2026-03-30T08:23:48Z</time></trkpt><trkpt lat="41.94383825134654" lon="1.6976396905043922"><ele>579.0</ele><time>2026-03-30T08:23:49Z</time></trkpt><trkpt lat="41.94367876782102" lon="1.6975800920188178"><ele>579.0</ele><time>2026-03-30T08:23:50Z</time></trkpt><trkpt lat="41.94352403175476" lon="1.6975212203104635"><ele>579.0</ele><time>2026-03-30T08:23:51Z</time></trkpt><trkpt lat="41.94337515501613" lon="1.6974645778243287"><ele>579.0</ele><time>2026-03-30T08:23:52Z</time></trkpt><trkpt lat="41.943227264988685" lon="1.6974165408192747"><ele>576.5</ele><time>2026-03-30T08:23:53Z</time></trkpt><trkpt lat="41.943068926972174" lon="1.6974121037146328"><ele>574.0</ele><time>2026-03-30T08:23:54Z</time></trkpt><trkpt lat="41.942923328983504" lon="1.697414806536155"><ele>571.5</ele><time>2026-03-30T08:23:55Z</time></trkpt><trkpt lat="41.94278124746002" lon="1.6974124301367688"><ele>569.0</ele><time>2026-03-30T08:23:56Z</time></trkpt><trkpt lat="41.94265521433461" lon="1.6973700836342884"><ele>569.0</ele><time>2026-03-30T08:23:57Z</time></trkpt><trkpt lat="41.94257281761497" lon="1.697240658322099"><ele>569.0</ele><time>2026-03-30T08:23:58Z</time></trkpt><trkpt lat="41.94246434899738" lon="1.6970360812281053"><ele>569.0</ele><time>2026-03-30T08:23:59Z</time></trkpt><trkpt lat="41.94233316277968" lon="1.6968302397113815"><ele>568.6666666666666</ele><time>2026-03-30T08:24:00Z</time></trkpt><trkpt lat="41.94218440844869" lon="1.6966949303411007"><ele>568.3333333333334</ele><time>2026-03-30T08:24:01Z</time></trkpt><trkpt lat="41.94201966221754" lon="1.6966155090768409"><ele>568.0</ele><time>2026-03-30T08:24:02Z</time></trkpt><trkpt lat="41.94184434958439" lon="1.6965898033070417"><ele>564.0</ele><time>2026-03-30T08:24:03Z</time></trkpt><trkpt lat="41.941682973727005" lon="1.6965610645504912"><ele>560.0</ele><time>2026-03-30T08:24:04Z</time></trkpt><trkpt lat="41.94154497299467" lon="1.6964909579182543"><ele>556.0</ele><time>2026-03-30T08:24:05Z</time></trkpt><trkpt lat="41.94139534887478" lon="1.6963602994057079"><ele>556.0</ele><time>2026-03-30T08:24:06Z</time></trkpt><trkpt lat="41.94124773489625" lon="1.6962123572884047"><ele>556.0</ele><time>2026-03-30T08:24:07Z</time></trkpt><trkpt lat="41.94110428040093" lon="1.6960655948642436"><ele>556.0</ele><time>2026-03-30T08:24:08Z</time></trkpt><trkpt lat="41.94095899683908" lon="1.6959126943430127"><ele>553.6666666666667</ele><time>2026-03-30T08:24:09Z</time></trkpt><trkpt lat="41.94081341710936" lon="1.695756597066015"><ele>551.3333333333334</ele><time>2026-03-30T08:24:10Z</time></trkpt><trkpt lat="41.940658352457824" lon="1.6956168639434182"><ele>549.0</ele><time>2026-03-30T08:24:11Z</time></trkpt><trkpt lat="41.940487937159126" lon="1.695532035783564"><ele>549.0</ele><time>2026-03-30T08:24:12Z</time></trkpt><trkpt lat="41.940305720556445" lon="1.6954887725612529"><ele>549.0</ele><time>2026-03-30T08:24:13Z</time></trkpt><trkpt lat="41.94012187134136" lon="1.6954827660975846"><ele>549.0</ele><time>2026-03-30T08:24:14Z</time></trkpt><trkpt lat="41.93992687915701" lon="1.6955075726547117"><ele>546.6666666666666</ele><time>2026-03-30T08:24:15Z</time></trkpt><trkpt lat="41.93974297992383" lon="1.6955347932455245"><ele>544.3333333333333</ele><time>2026-03-30T08:24:16Z</time></trkpt><trkpt lat="41.93958122326472" lon="1.695551464184693"><ele>542.0</ele><time>2026-03-30T08:24:17Z</time></trkpt><trkpt lat="41.93944012776739" lon="1.6955363496723928"><ele>542.0</ele><time>2026-03-30T08:24:18Z</time></trkpt><trkpt lat="41.93934356272346" lon="1.6954368136575868"><ele>542.0</ele><time>2026-03-30T08:24:19Z</time></trkpt><trkpt lat="41.93926308317316" lon="1.6952810649576926"><ele>542.0</ele><time>2026-03-30T08:24:20Z</time></trkpt><trkpt lat="41.939173406737105" lon="1.695124936891882"><ele>542.0</ele><time>2026-03-30T08:24:21Z</time></trkpt><trkpt lat="41.93906259677106" lon="1.6950044567738143"><ele>542.0</ele><time>2026-03-30T08:24:22Z</time></trkpt><trkpt lat="41.93895618428614" lon="1.6948763636239763"><ele>542.0</ele><time>2026-03-30T08:24:23Z</time></trkpt><trkpt lat="41.93878501943251" lon="1.694863830719004"><ele>542.0</ele><time>2026-03-30T08:24:24Z</time></trkpt><trkpt lat="41.938618947602436" lon="1.6948879989166339"><ele>542.0</ele><time>2026-03-30T08:24:25Z</time></trkpt><trkpt lat="41.938475846407414" lon="1.6950206198994429"><ele>542.0</ele><time>2026-03-30T08:24:26Z</time></trkpt><trkpt lat="41.938355073638554" lon="1.6951331028671648"><ele>542.0</ele><time>2026-03-30T08:24:27Z</time></trkpt><trkpt lat="41.938245031302635" lon="1.695205428098412"><ele>542.0</ele><time>2026-03-30T08:24:28Z</time></trkpt><trkpt lat="41.93812806595869" lon="1.6952096592594317"><ele>541.0</ele><time>2026-03-30T08:24:29Z</time></trkpt><trkpt lat="41.93800485869066" lon="1.695145967308996"><ele>540.0</ele><time>2026-03-30T08:24:30Z</time></trkpt><trkpt lat="41.93788122052238" lon="1.6950497864373717"><ele>539.0</ele><time>2026-03-30T08:24:31Z</time></trkpt><trkpt lat="41.937727040246656" lon="1.694911327064991"><ele>539.0</ele><time>2026-03-30T08:24:32Z</time></trkpt><trkpt lat="41.937588922165745" lon="1.6947716344527541"><ele>539.0</ele><time>2026-03-30T08:24:33Z</time></trkpt><trkpt lat="41.937448118518006" lon="1.6946321296616766"><ele>539.0</ele><time>2026-03-30T08:24:34Z</time></trkpt><trkpt lat="41.937298529946574" lon="1.694487006503631"><ele>540.6666666666666</ele><time>2026-03-30T08:24:35Z</time></trkpt><trkpt lat="41.937144948929486" lon="1.6943616204642333"><ele>542.3333333333334</ele><time>2026-03-30T08:24:36Z</time></trkpt><trkpt lat="41.93697220112536" lon="1.6943099296728783"><ele>544.0</ele><time>2026-03-30T08:24:37Z</time></trkpt><trkpt lat="41.936788854609695" lon="1.6943017658110013"><ele>537.6666666666667</ele><time>2026-03-30T08:24:38Z</time></trkpt><trkpt lat="41.936577723619045" lon="1.6943547046880139"><ele>531.3333333333334</ele><time>2026-03-30T08:24:39Z</time></trkpt><trkpt lat="41.93639253605644" lon="1.694396025444753"><ele>525.0</ele><time>2026-03-30T08:24:40Z</time></trkpt><trkpt lat="41.93623145269389" lon="1.6944584464055639"><ele>520.3333333333334</ele><time>2026-03-30T08:24:41Z</time></trkpt><trkpt lat="41.93608734447144" lon="1.6945585342164908"><ele>515.6666666666667</ele><time>2026-03-30T08:24:42Z</time></trkpt><trkpt lat="41.935981384732095" lon="1.694717523512647"><ele>511.0</ele><time>2026-03-30T08:24:43Z</time></trkpt><trkpt lat="41.935894581113665" lon="1.6948818041207536"><ele>510.0</ele><time>2026-03-30T08:24:44Z</time></trkpt><trkpt lat="41.93576462274607" lon="1.6949865070906254"><ele>509.0</ele><time>2026-03-30T08:24:45Z</time></trkpt><trkpt lat="41.93561249932328" lon="1.695075721097546"><ele>508.0</ele><time>2026-03-30T08:24:46Z</time></trkpt><trkpt lat="41.935447049720054" lon="1.695155106650743"><ele>508.0</ele><time>2026-03-30T08:24:47Z</time></trkpt><trkpt lat="41.93526894139689" lon="1.6952311905095858"><ele>508.0</ele><time>2026-03-30T08:24:48Z</time></trkpt><trkpt lat="41.935083074468004" lon="1.695306133404354"><ele>508.0</ele><time>2026-03-30T08:24:49Z</time></trkpt><trkpt lat="41.93490815090512" lon="1.6953753600024997"><ele>504.33333333333337</ele><time>2026-03-30T08:24:50Z</time></trkpt><trkpt lat="41.93473975343007" lon="1.695439810078912"><ele>500.66666666666663</ele><time>2026-03-30T08:24:51Z</time></trkpt><trkpt lat="41.93457749356667" lon="1.6954871934782694"><ele>497.0</ele><time>2026-03-30T08:24:52Z</time></trkpt><trkpt lat="41.934418620613044" lon="1.6955083852579758"><ele>497.0</ele><time>2026-03-30T08:24:53Z</time></trkpt><trkpt lat="41.93424658182243" lon="1.6954907771912655"><ele>497.0</ele><time>2026-03-30T08:24:54Z</time></trkpt><trkpt lat="41.93406817761523" lon="1.695456930989098"><ele>497.0</ele><time>2026-03-30T08:24:55Z</time></trkpt><trkpt lat="41.933888253139685" lon="1.6954211457381807"><ele>495.66666666666663</ele><time>2026-03-30T08:24:56Z</time></trkpt><trkpt lat="41.933712548486575" lon="1.695381065204088"><ele>494.33333333333337</ele><time>2026-03-30T08:24:57Z</time></trkpt><trkpt lat="41.93354744594194" lon="1.6953363430914183"><ele>493.0</ele><time>2026-03-30T08:24:58Z</time></trkpt><trkpt lat="41.93340129571723" lon="1.6952709482143922"><ele>492.6666666666667</ele><time>2026-03-30T08:24:59Z</time></trkpt><trkpt lat="41.93325952868426" lon="1.6951715070037878"><ele>492.33333333333337</ele><time>2026-03-30T08:25:00Z</time></trkpt><trkpt lat="41.933115230319366" lon="1.6950239866894175"><ele>492.0</ele><time>2026-03-30T08:25:01Z</time></trkpt><trkpt lat="41.93299390631616" lon="1.69481354810543"><ele>492.0</ele><time>2026-03-30T08:25:02Z</time></trkpt><trkpt lat="41.93288452102509" lon="1.6945910818633378"><ele>492.0</ele><time>2026-03-30T08:25:03Z</time></trkpt><trkpt lat="41.93278328307428" lon="1.694371155144943"><ele>492.0</ele><time>2026-03-30T08:25:04Z</time></trkpt><trkpt lat="41.93266589342971" lon="1.6941530268260387"><ele>489.33333333333337</ele><time>2026-03-30T08:25:05Z</time></trkpt><trkpt lat="41.932555005737186" lon="1.6939038066691"><ele>486.6666666666667</ele><time>2026-03-30T08:25:06Z</time></trkpt><trkpt lat="41.93244282983913" lon="1.6936592731805327"><ele>484.0</ele><time>2026-03-30T08:25:07Z</time></trkpt><trkpt lat="41.932338921971976" lon="1.6934074695749293"><ele>484.0</ele><time>2026-03-30T08:25:08Z</time></trkpt><trkpt lat="41.93223746974172" lon="1.6931614966955284"><ele>484.0</ele><time>2026-03-30T08:25:09Z</time></trkpt><trkpt lat="41.932132888255005" lon="1.6929193685337711"><ele>484.0</ele><time>2026-03-30T08:25:10Z</time></trkpt><trkpt lat="41.93204355113708" lon="1.692657582692301"><ele>483.33333333333337</ele><time>2026-03-30T08:25:11Z</time></trkpt><trkpt lat="41.931938167000396" lon="1.6924021479827214"><ele>482.66666666666663</ele><time>2026-03-30T08:25:12Z</time></trkpt><trkpt lat="41.931834970080914" lon="1.6921520148531286"><ele>482.0</ele><time>2026-03-30T08:25:13Z</time></trkpt><trkpt lat="41.9317320811311" lon="1.6919026281218845"><ele>479.3333333333333</ele><time>2026-03-30T08:25:14Z</time></trkpt><trkpt lat="41.93161595446904" lon="1.6916658611915871"><ele>476.66666666666663</ele><time>2026-03-30T08:25:15Z</time></trkpt><trkpt lat="41.931527045145266" lon="1.6914033918574274"><ele>474.0</ele><time>2026-03-30T08:25:16Z</time></trkpt><trkpt lat="41.93142539186533" lon="1.6911558349047575"><ele>474.33333333333337</ele><time>2026-03-30T08:25:17Z</time></trkpt><trkpt lat="41.93132459040731" lon="1.6909103524272233"><ele>474.6666666666667</ele><time>2026-03-30T08:25:18Z</time></trkpt><trkpt lat="41.93122510605136" lon="1.690668073651115"><ele>475.0</ele><time>2026-03-30T08:25:19Z</time></trkpt><trkpt lat="41.93112703631804" lon="1.690429579606461"><ele>474.33333333333337</ele><time>2026-03-30T08:25:20Z</time></trkpt><trkpt lat="41.93101683936267" lon="1.690200716405431"><ele>473.66666666666663</ele><time>2026-03-30T08:25:21Z</time></trkpt><trkpt lat="41.930926217857944" lon="1.6899640224199057"><ele>473.0</ele><time>2026-03-30T08:25:22Z</time></trkpt><trkpt lat="41.93082905708837" lon="1.6897305826689"><ele>471.66666666666663</ele><time>2026-03-30T08:25:23Z</time></trkpt><trkpt lat="41.93073096442539" lon="1.689504815088881"><ele>470.33333333333337</ele><time>2026-03-30T08:25:24Z</time></trkpt><trkpt lat="41.930651932508276" lon="1.6892713720517598"><ele>469.0</ele><time>2026-03-30T08:25:25Z</time></trkpt><trkpt lat="41.930547170127205" lon="1.6890568432656923"><ele>469.0</ele><time>2026-03-30T08:25:26Z</time></trkpt><trkpt lat="41.93046097470455" lon="1.6888272024402504"><ele>469.0</ele><time>2026-03-30T08:25:27Z</time></trkpt><trkpt lat="41.93037134140143" lon="1.6886052520781079"><ele>469.0</ele><time>2026-03-30T08:25:28Z</time></trkpt><trkpt lat="41.93028533957832" lon="1.6884024912347513"><ele>468.6666666666667</ele><time>2026-03-30T08:25:29Z</time></trkpt><trkpt lat="41.93020775956476" lon="1.6882156590218125"><ele>468.33333333333337</ele><time>2026-03-30T08:25:30Z</time></trkpt><trkpt lat="41.930129525164816" lon="1.6880322049826628"><ele>468.0</ele><time>2026-03-30T08:25:31Z</time></trkpt><trkpt lat="41.93004743987448" lon="1.687844025883236"><ele>466.33333333333337</ele><time>2026-03-30T08:25:32Z</time></trkpt><trkpt lat="41.92996933736779" lon="1.6876551950154375"><ele>464.6666666666667</ele><time>2026-03-30T08:25:33Z</time></trkpt><trkpt lat="41.92989487519034" lon="1.6874701691735512"><ele>463.0</ele><time>2026-03-30T08:25:34Z</time></trkpt><trkpt lat="41.92982104988095" lon="1.6872915271334457"><ele>463.0</ele><time>2026-03-30T08:25:35Z</time></trkpt><trkpt lat="41.9297643879492" lon="1.6871105531175503"><ele>463.0</ele><time>2026-03-30T08:25:36Z</time></trkpt><trkpt lat="41.9296831513465" lon="1.6869593026872893"><ele>463.0</ele><time>2026-03-30T08:25:37Z</time></trkpt><trkpt lat="41.929622566077015" lon="1.6867994474576302"><ele>463.0</ele><time>2026-03-30T08:25:38Z</time></trkpt><trkpt lat="41.92955916943317" lon="1.6866388894328483"><ele>462.33333333333337</ele><time>2026-03-30T08:25:39Z</time></trkpt><trkpt lat="41.92949029410779" lon="1.6864712176495877"><ele>461.66666666666663</ele><time>2026-03-30T08:25:40Z</time></trkpt><trkpt lat="41.92941518003718" lon="1.6862955052044533"><ele>461.0</ele><time>2026-03-30T08:25:41Z</time></trkpt><trkpt lat="41.929334492305266" lon="1.6861008848011079"><ele>460.66666666666663</ele><time>2026-03-30T08:25:42Z</time></trkpt><trkpt lat="41.92923498612718" lon="1.6858662603023655"><ele>460.33333333333337</ele><time>2026-03-30T08:25:43Z</time></trkpt><trkpt lat="41.92913690257347" lon="1.6855861950044888"><ele>460.0</ele><time>2026-03-30T08:25:44Z</time></trkpt><trkpt lat="41.92903031846805" lon="1.6853272814575904"><ele>457.6666666666667</ele><time>2026-03-30T08:25:45Z</time></trkpt><trkpt lat="41.92892185328654" lon="1.6851069205112954"><ele>455.33333333333337</ele><time>2026-03-30T08:25:46Z</time></trkpt><trkpt lat="41.92882834971487" lon="1.6848761669062668"><ele>453.0</ele><time>2026-03-30T08:25:47Z</time></trkpt><trkpt lat="41.92874286723888" lon="1.684628084194065"><ele>453.0</ele><time>2026-03-30T08:25:48Z</time></trkpt><trkpt lat="41.92864551504872" lon="1.6843904400606635"><ele>453.0</ele><time>2026-03-30T08:25:49Z</time></trkpt><trkpt lat="41.928538192605835" lon="1.684171579129382"><ele>453.0</ele><time>2026-03-30T08:25:50Z</time></trkpt><trkpt lat="41.92845134695735" lon="1.683955622601855"><ele>453.0</ele><time>2026-03-30T08:25:51Z</time></trkpt><trkpt lat="41.928359989078395" lon="1.6837619874674563"><ele>453.0</ele><time>2026-03-30T08:25:52Z</time></trkpt><trkpt lat="41.92825915421911" lon="1.6835881188353843"><ele>453.0</ele><time>2026-03-30T08:25:53Z</time></trkpt><trkpt lat="41.92811932175529" lon="1.6834241676140587"><ele>452.33333333333337</ele><time>2026-03-30T08:25:54Z</time></trkpt><trkpt lat="41.92792348088982" lon="1.6832995506574808"><ele>451.6666666666667</ele><time>2026-03-30T08:25:55Z</time></trkpt><trkpt lat="41.9277235064622" lon="1.6831768531689253"><ele>451.0</ele><time>2026-03-30T08:25:56Z</time></trkpt><trkpt lat="41.92754359988331" lon="1.683072014700138"><ele>451.0</ele><time>2026-03-30T08:25:57Z</time></trkpt><trkpt lat="41.92737468246732" lon="1.6829735800872234"><ele>451.0</ele><time>2026-03-30T08:25:58Z</time></trkpt><trkpt lat="41.927207141759716" lon="1.6828759494306842"><ele>451.0</ele><time>2026-03-30T08:25:59Z</time></trkpt><trkpt lat="41.92703608792669" lon="1.6827766462162317"><ele>449.6666666666667</ele><time>2026-03-30T08:26:00Z</time></trkpt><trkpt lat="41.92686347153295" lon="1.6826760845838509"><ele>448.33333333333337</ele><time>2026-03-30T08:26:01Z</time></trkpt><trkpt lat="41.926688206184465" lon="1.6825721663715751"><ele>447.0</ele><time>2026-03-30T08:26:02Z</time></trkpt><trkpt lat="41.92650952902845" lon="1.6824654028873054"><ele>446.66666666666663</ele><time>2026-03-30T08:26:03Z</time></trkpt><trkpt lat="41.92633263713368" lon="1.6823597061939612"><ele>446.3333333333333</ele><time>2026-03-30T08:26:04Z</time></trkpt><trkpt lat="41.926149569883165" lon="1.6822624080507562"><ele>446.0</ele><time>2026-03-30T08:26:05Z</time></trkpt><trkpt lat="41.92594889266426" lon="1.6821982128600905"><ele>445.0</ele><time>2026-03-30T08:26:06Z</time></trkpt><trkpt lat="41.92571236346327" lon="1.6821977974397295"><ele>444.0</ele><time>2026-03-30T08:26:07Z</time></trkpt><trkpt lat="41.925493156034335" lon="1.6822065431181075"><ele>444.0</ele><time>2026-03-30T08:26:08Z</time></trkpt><trkpt lat="41.92527945910439" lon="1.682179660313629"><ele>444.0</ele><time>2026-03-30T08:26:09Z</time></trkpt><trkpt lat="41.925072815567205" lon="1.6821746419820263"><ele>444.0</ele><time>2026-03-30T08:26:10Z</time></trkpt><trkpt lat="41.924876275006" lon="1.6821696414661322"><ele>442.66666666666663</ele><time>2026-03-30T08:26:11Z</time></trkpt><trkpt lat="41.92469085673938" lon="1.6821649767464741"><ele>441.3333333333333</ele><time>2026-03-30T08:26:12Z</time></trkpt><trkpt lat="41.9245105745325" lon="1.6821604412516684"><ele>440.0</ele><time>2026-03-30T08:26:13Z</time></trkpt><trkpt lat="41.924332799940096" lon="1.6821559688342405"><ele>439.66666666666663</ele><time>2026-03-30T08:26:14Z</time></trkpt><trkpt lat="41.92415052533496" lon="1.682151383205508"><ele>439.33333333333337</ele><time>2026-03-30T08:26:15Z</time></trkpt><trkpt lat="41.92396256672473" lon="1.6821466581977962"><ele>439.0</ele><time>2026-03-30T08:26:16Z</time></trkpt><trkpt lat="41.92377248318071" lon="1.6821419222760843"><ele>439.0</ele><time>2026-03-30T08:26:17Z</time></trkpt><trkpt lat="41.923576636877485" lon="1.6821348769324154"><ele>439.0</ele><time>2026-03-30T08:26:18Z</time></trkpt><trkpt lat="41.92338986148161" lon="1.682127870670177"><ele>439.0</ele><time>2026-03-30T08:26:19Z</time></trkpt><trkpt lat="41.923211203690755" lon="1.6821462090651655"><ele>437.0</ele><time>2026-03-30T08:26:20Z</time></trkpt><trkpt lat="41.92303539174592" lon="1.6821654680836144"><ele>435.0</ele><time>2026-03-30T08:26:21Z</time></trkpt><trkpt lat="41.92285830889682" lon="1.6822353729162973"><ele>433.0</ele><time>2026-03-30T08:26:22Z</time></trkpt><trkpt lat="41.92268144727303" lon="1.6823401502466129"><ele>430.6666666666667</ele><time>2026-03-30T08:26:23Z</time></trkpt><trkpt lat="41.92250760046201" lon="1.6824101113736396"><ele>428.33333333333337</ele><time>2026-03-30T08:26:24Z</time></trkpt><trkpt lat="41.92236267128974" lon="1.6824823386583208"><ele>426.0</ele><time>2026-03-30T08:26:25Z</time></trkpt><trkpt lat="41.92223736639601" lon="1.6825656189284126"><ele>426.0</ele><time>2026-03-30T08:26:26Z</time></trkpt><trkpt lat="41.92210888351084" lon="1.6826274105954793"><ele>426.0</ele><time>2026-03-30T08:26:27Z</time></trkpt><trkpt lat="41.92197943151437" lon="1.682668815747546"><ele>426.0</ele><time>2026-03-30T08:26:28Z</time></trkpt><trkpt lat="41.9218598359148" lon="1.682727009041328"><ele>426.0</ele><time>2026-03-30T08:26:29Z</time></trkpt><trkpt lat="41.9217361183024" lon="1.6827882985617881"><ele>425.75</ele><time>2026-03-30T08:26:30Z</time></trkpt><trkpt lat="41.92160626453161" lon="1.682852443989441"><ele>425.5</ele><time>2026-03-30T08:26:31Z</time></trkpt><trkpt lat="41.92147796560587" lon="1.6829375329779586"><ele>425.25</ele><time>2026-03-30T08:26:32Z</time></trkpt><trkpt lat="41.921344659191305" lon="1.6829970462039099"><ele>425.0</ele><time>2026-03-30T08:26:33Z</time></trkpt><trkpt lat="41.92122458128463" lon="1.683058213611594"><ele>425.0</ele><time>2026-03-30T08:26:34Z</time></trkpt><trkpt lat="41.92111477661258" lon="1.6831142243708102"><ele>425.0</ele><time>2026-03-30T08:26:35Z</time></trkpt><trkpt lat="41.92101360276357" lon="1.6831607285458356"><ele>425.0</ele><time>2026-03-30T08:26:36Z</time></trkpt><trkpt lat="41.92091889476937" lon="1.6832010974885359"><ele>425.0</ele><time>2026-03-30T08:26:37Z</time></trkpt><trkpt lat="41.92082570138406" lon="1.6832137965080913"><ele>425.0</ele><time>2026-03-30T08:26:38Z</time></trkpt><trkpt lat="41.92074597653895" lon="1.6831457185151384"><ele>423.0</ele><time>2026-03-30T08:26:39Z</time></trkpt><trkpt lat="41.920689009232056" lon="1.6830366962024415"><ele>421.0</ele><time>2026-03-30T08:26:40Z</time></trkpt><trkpt lat="41.920647936666306" lon="1.6829433663306008"><ele>419.0</ele><time>2026-03-30T08:26:41Z</time></trkpt><trkpt lat="41.920575576373025" lon="1.6828151182395632"><ele>417.0</ele><time>2026-03-30T08:26:43Z</time></trkpt><trkpt lat="41.920518236530285" lon="1.6827647748291936"><ele>415.0</ele><time>2026-03-30T08:26:44Z</time></trkpt><trkpt lat="41.92038420113072" lon="1.682848898891585"><ele>415.0</ele><time>2026-03-30T08:26:45Z</time></trkpt><trkpt lat="41.92028530271921" lon="1.6828699089500851"><ele>415.0</ele><time>2026-03-30T08:26:46Z</time></trkpt><trkpt lat="41.92018959325019" lon="1.6828900350057434"><ele>415.0</ele><time>2026-03-30T08:26:47Z</time></trkpt><trkpt lat="41.92009547476525" lon="1.6829085990437567"><ele>415.0</ele><time>2026-03-30T08:26:48Z</time></trkpt><trkpt lat="41.92000007807176" lon="1.6829274152134883"><ele>415.0</ele><time>2026-03-30T08:26:49Z</time></trkpt><trkpt lat="41.91990037247833" lon="1.6829461269294896"><ele>413.2</ele><time>2026-03-30T08:26:50Z</time></trkpt><trkpt lat="41.91976691343705" lon="1.68297090630931"><ele>411.4</ele><time>2026-03-30T08:26:51Z</time></trkpt><trkpt lat="41.919647003756126" lon="1.683017015568357"><ele>409.6</ele><time>2026-03-30T08:26:52Z</time></trkpt><trkpt lat="41.91954967223291" lon="1.6829809994899487"><ele>407.8</ele><time>2026-03-30T08:26:53Z</time></trkpt><trkpt lat="41.919487845763165" lon="1.6829015555757294"><ele>406.0</ele><time>2026-03-30T08:26:54Z</time></trkpt><trkpt lat="41.91944791009838" lon="1.6827999796451216"><ele>406.33333333333337</ele><time>2026-03-30T08:26:55Z</time></trkpt><trkpt lat="41.919431648380176" lon="1.682703406199055"><ele>406.6666666666667</ele><time>2026-03-30T08:26:56Z</time></trkpt><trkpt lat="41.91946676520147" lon="1.682578784149593"><ele>407.0</ele><time>2026-03-30T08:26:57Z</time></trkpt><trkpt lat="41.919442693551886" lon="1.6824618916346037"><ele>407.33333333333337</ele><time>2026-03-30T08:26:58Z</time></trkpt><trkpt lat="41.919401243908155" lon="1.6823549421925412"><ele>407.6666666666667</ele><time>2026-03-30T08:26:59Z</time></trkpt><trkpt lat="41.91933397545268" lon="1.6822897437201267"><ele>408.0</ele><time>2026-03-30T08:27:00Z</time></trkpt><trkpt lat="41.919249208040185" lon="1.6823542356245782"><ele>408.4</ele><time>2026-03-30T08:27:01Z</time></trkpt><trkpt lat="41.9191656993537" lon="1.6824450309438592"><ele>408.79999999999995</ele><time>2026-03-30T08:27:03Z</time></trkpt><trkpt lat="41.91908687184024" lon="1.68245142646591"><ele>409.2</ele><time>2026-03-30T08:27:04Z</time></trkpt><trkpt lat="41.91900171537361" lon="1.6824300865380948"><ele>409.6</ele><time>2026-03-30T08:27:05Z</time></trkpt><trkpt lat="41.91894184769383" lon="1.6823454962772417"><ele>410.0</ele><time>2026-03-30T08:27:06Z</time></trkpt><trkpt lat="41.91888207021898" lon="1.682255687409832"><ele>410.0</ele><time>2026-03-30T08:27:07Z</time></trkpt><trkpt lat="41.91884730917501" lon="1.6821048644417709"><ele>410.0</ele><time>2026-03-30T08:27:08Z</time></trkpt><trkpt lat="41.91882403278742" lon="1.6818648280062178"><ele>410.0</ele><time>2026-03-30T08:27:09Z</time></trkpt><trkpt lat="41.91878810468104" lon="1.6816361243672577"><ele>410.25</ele><time>2026-03-30T08:27:10Z</time></trkpt><trkpt lat="41.91877811722678" lon="1.6814303108790756"><ele>410.5</ele><time>2026-03-30T08:27:11Z</time></trkpt><trkpt lat="41.91875687574309" lon="1.68123015157238"><ele>410.75</ele><time>2026-03-30T08:27:12Z</time></trkpt><trkpt lat="41.918736650179234" lon="1.6810487589836633"><ele>411.0</ele><time>2026-03-30T08:27:13Z</time></trkpt><trkpt lat="41.91872237450292" lon="1.6808988002064174"><ele>411.0</ele><time>2026-03-30T08:27:14Z</time></trkpt><trkpt lat="41.91870363767996" lon="1.680764852755865"><ele>411.0</ele><time>2026-03-30T08:27:15Z</time></trkpt><trkpt lat="41.91867497894773" lon="1.6806685452541557"><ele>411.0</ele><time>2026-03-30T08:27:16Z</time></trkpt><trkpt lat="41.91862838498095" lon="1.680563768486111"><ele>411.0</ele><time>2026-03-30T08:27:17Z</time></trkpt><trkpt lat="41.91857308867799" lon="1.68049070063976"><ele>411.0</ele><time>2026-03-30T08:27:18Z</time></trkpt><trkpt lat="41.91849947695067" lon="1.6804285040318478"><ele>411.0</ele><time>2026-03-30T08:27:19Z</time></trkpt><trkpt lat="41.91842510763731" lon="1.6803658470888554"><ele>412.8333333333333</ele><time>2026-03-30T08:27:20Z</time></trkpt><trkpt lat="41.91836263401739" lon="1.6802953091680881"><ele>414.66666666666663</ele><time>2026-03-30T08:27:21Z</time></trkpt><trkpt lat="41.918302111376654" lon="1.6802312055241473"><ele>416.5</ele><time>2026-03-30T08:27:22Z</time></trkpt><trkpt lat="41.9181884705689" lon="1.6802428711617294"><ele>418.3333333333333</ele><time>2026-03-30T08:27:24Z</time></trkpt><trkpt lat="41.918150222128546" lon="1.6803114080863812"><ele>420.16666666666663</ele><time>2026-03-30T08:27:25Z</time></trkpt><trkpt lat="41.91813416990367" lon="1.6804085326353313"><ele>422.0</ele><time>2026-03-30T08:27:26Z</time></trkpt><trkpt lat="41.91815456926975" lon="1.680514492476524"><ele>422.66666666666663</ele><time>2026-03-30T08:27:27Z</time></trkpt><trkpt lat="41.918237431436516" lon="1.6806498943870822"><ele>423.33333333333337</ele><time>2026-03-30T08:27:28Z</time></trkpt><trkpt lat="41.91829862484395" lon="1.6808750398593308"><ele>424.0</ele><time>2026-03-30T08:27:29Z</time></trkpt><trkpt lat="41.91836429713398" lon="1.6810948259487484"><ele>419.6666666666667</ele><time>2026-03-30T08:27:30Z</time></trkpt><trkpt lat="41.91840514675817" lon="1.6813520876148103"><ele>415.33333333333337</ele><time>2026-03-30T08:27:31Z</time></trkpt><trkpt lat="41.91842773777075" lon="1.6815897042740784"><ele>411.0</ele><time>2026-03-30T08:27:32Z</time></trkpt><trkpt lat="41.91844570747211" lon="1.6817963687609996"><ele>410.75</ele><time>2026-03-30T08:27:33Z</time></trkpt><trkpt lat="41.91845355664306" lon="1.6819788490947565"><ele>410.5</ele><time>2026-03-30T08:27:34Z</time></trkpt><trkpt lat="41.91844667947782" lon="1.6821443186729883"><ele>410.25</ele><time>2026-03-30T08:27:35Z</time></trkpt><trkpt lat="41.91842992284062" lon="1.6823005933286324"><ele>410.0</ele><time>2026-03-30T08:27:36Z</time></trkpt><trkpt lat="41.91842271616828" lon="1.6824562853730254"><ele>409.99999999999994</ele><time>2026-03-30T08:27:37Z</time></trkpt><trkpt lat="41.91840378364442" lon="1.6825926769207027"><ele>410.0</ele><time>2026-03-30T08:27:38Z</time></trkpt><trkpt lat="41.91837251904054" lon="1.682718119368382"><ele>410.0</ele><time>2026-03-30T08:27:39Z</time></trkpt><trkpt lat="41.918334012943404" lon="1.6828294601936673"><ele>410.0</ele><time>2026-03-30T08:27:40Z</time></trkpt><trkpt lat="41.91829075900373" lon="1.6829273242658804"><ele>409.99999999999994</ele><time>2026-03-30T08:27:41Z</time></trkpt><trkpt lat="41.91825907597297" lon="1.683006251935364"><ele>410.0</ele><time>2026-03-30T08:27:42Z</time></trkpt><trkpt lat="41.91821165111381" lon="1.6831668194309946"><ele>413.0</ele><time>2026-03-30T08:27:44Z</time></trkpt><trkpt lat="41.91819277175288" lon="1.683261224451329"><ele>416.0</ele><time>2026-03-30T08:27:45Z</time></trkpt><trkpt lat="41.91818600256597" lon="1.6833553391124778"><ele>419.0</ele><time>2026-03-30T08:27:46Z</time></trkpt><trkpt lat="41.918198004927206" lon="1.683441972674513"><ele>422.0</ele><time>2026-03-30T08:27:47Z</time></trkpt><trkpt lat="41.918223291994366" lon="1.6835580032198822"><ele>425.0</ele><time>2026-03-30T08:27:49Z</time></trkpt><trkpt lat="41.91824022645474" lon="1.6836595317663818"><ele>428.0</ele><time>2026-03-30T08:27:52Z</time></trkpt><trkpt lat="41.918257092425634" lon="1.6837419048901183"><ele>431.0</ele><time>2026-03-30T08:27:54Z</time></trkpt><trkpt lat="41.91826087526511" lon="1.6838292878719974"><ele>431.3333333333333</ele><time>2026-03-30T08:27:55Z</time></trkpt><trkpt lat="41.91825242085409" lon="1.6839807519157426"><ele>431.66666666666663</ele><time>2026-03-30T08:27:57Z</time></trkpt><trkpt lat="41.91825512793213" lon="1.6841498929088088"><ele>432.0</ele><time>2026-03-30T08:27:59Z</time></trkpt><trkpt lat="41.91825206539585" lon="1.6842380694774954"><ele>432.33333333333337</ele><time>2026-03-30T08:28:00Z</time></trkpt><trkpt lat="41.91824323022367" lon="1.6843328996018303"><ele>432.6666666666667</ele><time>2026-03-30T08:28:01Z</time></trkpt><trkpt lat="41.91822931825234" lon="1.6844264694819617"><ele>433.0</ele><time>2026-03-30T08:28:02Z</time></trkpt><trkpt lat="41.91820865430941" lon="1.6845231889992367"><ele>431.79999999999995</ele><time>2026-03-30T08:28:03Z</time></trkpt><trkpt lat="41.91818222862895" lon="1.6846187759842748"><ele>430.59999999999997</ele><time>2026-03-30T08:28:04Z</time></trkpt><trkpt lat="41.91815034610382" lon="1.6846983326809863"><ele>429.40000000000003</ele><time>2026-03-30T08:28:05Z</time></trkpt><trkpt lat="41.91805818714869" lon="1.6847764348785639"><ele>428.20000000000005</ele><time>2026-03-30T08:28:07Z</time></trkpt><trkpt lat="41.91793859453581" lon="1.6847643088471445"><ele>427.0</ele><time>2026-03-30T08:28:09Z</time></trkpt><trkpt lat="41.91792197780838" lon="1.684639759696477"><ele>427.00000000000006</ele><time>2026-03-30T08:28:10Z</time></trkpt><trkpt lat="41.91794286400696" lon="1.6845341656001982"><ele>427.0</ele><time>2026-03-30T08:28:11Z</time></trkpt><trkpt lat="41.917921117867245" lon="1.6844215330952819"><ele>427.0</ele><time>2026-03-30T08:28:12Z</time></trkpt><trkpt lat="41.91789503276243" lon="1.6842999514897548"><ele>427.0</ele><time>2026-03-30T08:28:13Z</time></trkpt><trkpt lat="41.917868862100605" lon="1.6841779700401567"><ele>427.00000000000006</ele><time>2026-03-30T08:28:14Z</time></trkpt><trkpt lat="41.9178481005718" lon="1.684081200941142"><ele>427.0</ele><time>2026-03-30T08:28:15Z</time></trkpt><trkpt lat="41.91782626210007" lon="1.6839809410085838"><ele>428.00000000000006</ele><time>2026-03-30T08:28:16Z</time></trkpt><trkpt lat="41.917787317905805" lon="1.6838935544999623"><ele>429.0</ele><time>2026-03-30T08:28:17Z</time></trkpt><trkpt lat="41.91777454025121" lon="1.6838087743700696"><ele>430.0</ele><time>2026-03-30T08:28:18Z</time></trkpt><trkpt lat="41.917700720740456" lon="1.6837614154429852"><ele>431.0</ele><time>2026-03-30T08:28:19Z</time></trkpt><trkpt lat="41.917631809652505" lon="1.6837355292780927"><ele>432.00000000000006</ele><time>2026-03-30T08:28:20Z</time></trkpt><trkpt lat="41.91755178300166" lon="1.6837443504518756"><ele>433.0</ele><time>2026-03-30T08:28:21Z</time></trkpt><trkpt lat="41.91746912455336" lon="1.6837500024928336"><ele>436.00000000000006</ele><time>2026-03-30T08:28:22Z</time></trkpt><trkpt lat="41.9173836419596" lon="1.683773090433403"><ele>439.0</ele><time>2026-03-30T08:28:23Z</time></trkpt><trkpt lat="41.91730136875471" lon="1.6837784618737481"><ele>442.0</ele><time>2026-03-30T08:28:24Z</time></trkpt><trkpt lat="41.91722614081092" lon="1.6837535526291616"><ele>445.0</ele><time>2026-03-30T08:28:25Z</time></trkpt><trkpt lat="41.917160958076856" lon="1.6837134502749191"><ele>448.00000000000006</ele><time>2026-03-30T08:28:26Z</time></trkpt><trkpt lat="41.91710200590358" lon="1.6836638962652963"><ele>451.0</ele><time>2026-03-30T08:28:27Z</time></trkpt><trkpt lat="41.9170487167714" lon="1.683595026572375"><ele>452.00000000000006</ele><time>2026-03-30T08:28:28Z</time></trkpt><trkpt lat="41.91698483446557" lon="1.6835176947226458"><ele>453.0</ele><time>2026-03-30T08:28:29Z</time></trkpt><trkpt lat="41.916932069565945" lon="1.6834468916435976"><ele>454.0</ele><time>2026-03-30T08:28:30Z</time></trkpt><trkpt lat="41.91688136208493" lon="1.683376887563285"><ele>455.0</ele><time>2026-03-30T08:28:31Z</time></trkpt><trkpt lat="41.91681592733534" lon="1.683297803463069"><ele>456.00000000000006</ele><time>2026-03-30T08:28:32Z</time></trkpt><trkpt lat="41.9167441182066" lon="1.683229164524094"><ele>457.0</ele><time>2026-03-30T08:28:33Z</time></trkpt><trkpt lat="41.916665094474155" lon="1.6831694461733293"><ele>458.20000000000005</ele><time>2026-03-30T08:28:34Z</time></trkpt><trkpt lat="41.916582567623266" lon="1.6831194035503134"><ele>459.40000000000003</ele><time>2026-03-30T08:28:35Z</time></trkpt><trkpt lat="41.916497689642156" lon="1.6830798272507168"><ele>460.59999999999997</ele><time>2026-03-30T08:28:36Z</time></trkpt><trkpt lat="41.91641298248128" lon="1.6830347790923648"><ele>461.79999999999995</ele><time>2026-03-30T08:28:37Z</time></trkpt><trkpt lat="41.91632727761915" lon="1.6829870805580907"><ele>463.0</ele><time>2026-03-30T08:28:38Z</time></trkpt><trkpt lat="41.916240155810634" lon="1.682937507807549"><ele>463.00000000000006</ele><time>2026-03-30T08:28:39Z</time></trkpt><trkpt lat="41.91615831265105" lon="1.6828896193921985"><ele>463.0</ele><time>2026-03-30T08:28:40Z</time></trkpt><trkpt lat="41.91608070882956" lon="1.6828400067509566"><ele>463.0</ele><time>2026-03-30T08:28:41Z</time></trkpt><trkpt lat="41.916007395441405" lon="1.682790667855763"><ele>463.0</ele><time>2026-03-30T08:28:42Z</time></trkpt><trkpt lat="41.9159399763837" lon="1.682744253866156"><ele>463.00000000000006</ele><time>2026-03-30T08:28:43Z</time></trkpt><trkpt lat="41.915877777002514" lon="1.6826898111792294"><ele>463.0</ele><time>2026-03-30T08:28:44Z</time></trkpt><trkpt lat="41.9158211946953" lon="1.682643864471757"><ele>465.79999999999995</ele><time>2026-03-30T08:28:45Z</time></trkpt><trkpt lat="41.91570288409156" lon="1.6826220096518978"><ele>468.59999999999997</ele><time>2026-03-30T08:28:47Z</time></trkpt><trkpt lat="41.91564171282929" lon="1.6826793483019284"><ele>471.40000000000003</ele><time>2026-03-30T08:28:48Z</time></trkpt><trkpt lat="41.915593887808384" lon="1.6827845251212934"><ele>474.20000000000005</ele><time>2026-03-30T08:28:49Z</time></trkpt><trkpt lat="41.915532266888185" lon="1.6829032950634462"><ele>477.0</ele><time>2026-03-30T08:28:50Z</time></trkpt><trkpt lat="41.91547055740963" lon="1.6830384487260843"><ele>477.0</ele><time>2026-03-30T08:28:51Z</time></trkpt><trkpt lat="41.9154456616227" lon="1.6831725896222591"><ele>477.00000000000006</ele><time>2026-03-30T08:28:52Z</time></trkpt><trkpt lat="41.91546932445156" lon="1.6833026096477897"><ele>477.00000000000006</ele><time>2026-03-30T08:28:53Z</time></trkpt><trkpt lat="41.915504903900136" lon="1.6834251492940508"><ele>477.0</ele><time>2026-03-30T08:28:54Z</time></trkpt><trkpt lat="41.91553873290904" lon="1.6835216366715495"><ele>477.0</ele><time>2026-03-30T08:28:55Z</time></trkpt><trkpt lat="41.91559679208843" lon="1.6836268947412154"><ele>478.5</ele><time>2026-03-30T08:28:57Z</time></trkpt><trkpt lat="41.915649393911075" lon="1.6837592930171974"><ele>480.0</ele><time>2026-03-30T08:28:58Z</time></trkpt><trkpt lat="41.91573777224793" lon="1.6839580807849723"><ele>481.5</ele><time>2026-03-30T08:28:59Z</time></trkpt><trkpt lat="41.91580518609906" lon="1.6841135758826018"><ele>483.0</ele><time>2026-03-30T08:29:00Z</time></trkpt><trkpt lat="41.915854680162944" lon="1.684241165612715"><ele>483.0</ele><time>2026-03-30T08:29:01Z</time></trkpt><trkpt lat="41.91589359655781" lon="1.684352406262522"><ele>483.0</ele><time>2026-03-30T08:29:02Z</time></trkpt><trkpt lat="41.915925341046275" lon="1.68444411482545"><ele>483.0</ele><time>2026-03-30T08:29:03Z</time></trkpt><trkpt lat="41.91591880959286" lon="1.6845931816707043"><ele>483.0</ele><time>2026-03-30T08:29:05Z</time></trkpt><trkpt lat="41.91585128358989" lon="1.6846189196940196"><ele>483.0</ele><time>2026-03-30T08:29:06Z</time></trkpt><trkpt lat="41.91578696119037" lon="1.6845355726632334"><ele>483.0</ele><time>2026-03-30T08:29:07Z</time></trkpt><trkpt lat="41.91576869833513" lon="1.6844292502194385"><ele>483.0</ele><time>2026-03-30T08:29:08Z</time></trkpt><trkpt lat="41.915710480550686" lon="1.684332300352812"><ele>482.99999999999994</ele><time>2026-03-30T08:29:09Z</time></trkpt><trkpt lat="41.91565875575568" lon="1.6842178040960332"><ele>482.99999999999994</ele><time>2026-03-30T08:29:10Z</time></trkpt><trkpt lat="41.91559968669785" lon="1.6841090521309399"><ele>483.0</ele><time>2026-03-30T08:29:11Z</time></trkpt><trkpt lat="41.91554094934223" lon="1.6840023943016418"><ele>483.0</ele><time>2026-03-30T08:29:12Z</time></trkpt><trkpt lat="41.915481507509256" lon="1.6838988711154521"><ele>483.0</ele><time>2026-03-30T08:29:13Z</time></trkpt><trkpt lat="41.91542512259946" lon="1.6837955078396745"><ele>482.99999999999994</ele><time>2026-03-30T08:29:14Z</time></trkpt><trkpt lat="41.91538126240898" lon="1.6837074472054625"><ele>482.99999999999994</ele><time>2026-03-30T08:29:15Z</time></trkpt><trkpt lat="41.91530692848774" lon="1.683589878018096"><ele>483.0</ele><time>2026-03-30T08:29:17Z</time></trkpt><trkpt lat="41.915233788134714" lon="1.6835046251861083"><ele>483.0</ele><time>2026-03-30T08:29:19Z</time></trkpt><trkpt lat="41.9151755789736" lon="1.6834559739684278"><ele>482.0</ele><time>2026-03-30T08:29:21Z</time></trkpt><trkpt lat="41.915099435774486" lon="1.6834064477681714"><ele>481.0</ele><time>2026-03-30T08:29:24Z</time></trkpt><trkpt lat="41.91503457915938" lon="1.6833682808184667"><ele>480.0</ele><time>2026-03-30T08:29:26Z</time></trkpt><trkpt lat="41.91491616882954" lon="1.6833069793294857"><ele>479.0</ele><time>2026-03-30T08:29:28Z</time></trkpt><trkpt lat="41.914851332950704" lon="1.6832716286227971"><ele>478.0</ele><time>2026-03-30T08:29:29Z</time></trkpt><trkpt lat="41.91478437111367" lon="1.6832351187208259"><ele>477.0</ele><time>2026-03-30T08:29:30Z</time></trkpt><trkpt lat="41.91467108399678" lon="1.6831720559790242"><ele>481.6</ele><time>2026-03-30T08:29:32Z</time></trkpt><trkpt lat="41.91457043042177" lon="1.6831157385555522"><ele>486.20000000000005</ele><time>2026-03-30T08:29:34Z</time></trkpt><trkpt lat="41.914483295998004" lon="1.683066985499086"><ele>490.8</ele><time>2026-03-30T08:29:36Z</time></trkpt><trkpt lat="41.91438073927258" lon="1.6830131145207112"><ele>495.4</ele><time>2026-03-30T08:29:38Z</time></trkpt><trkpt lat="41.91426086022951" lon="1.6829807379541382"><ele>500.0</ele><time>2026-03-30T08:29:40Z</time></trkpt><trkpt lat="41.914143641363566" lon="1.6830428679985028"><ele>501.8</ele><time>2026-03-30T08:29:42Z</time></trkpt><trkpt lat="41.91410703167517" lon="1.6831186553895872"><ele>503.6</ele><time>2026-03-30T08:29:43Z</time></trkpt><trkpt lat="41.91399918931766" lon="1.6832330459992455"><ele>505.4</ele><time>2026-03-30T08:29:45Z</time></trkpt><trkpt lat="41.91395398360308" lon="1.6833014756408675"><ele>507.2</ele><time>2026-03-30T08:29:46Z</time></trkpt><trkpt lat="41.91386768013485" lon="1.6834046038993138"><ele>509.0</ele><time>2026-03-30T08:29:48Z</time></trkpt><trkpt lat="41.91378024773709" lon="1.6834745640974156"><ele>509.0</ele><time>2026-03-30T08:29:50Z</time></trkpt><trkpt lat="41.913701311907026" lon="1.6834982096963944"><ele>509.0</ele><time>2026-03-30T08:29:53Z</time></trkpt><trkpt lat="41.91363409224162" lon="1.6833944321258612"><ele>509.0</ele><time>2026-03-30T08:29:55Z</time></trkpt><trkpt lat="41.91366201634877" lon="1.6832496653099331"><ele>509.0</ele><time>2026-03-30T08:29:57Z</time></trkpt><trkpt lat="41.91371538655875" lon="1.6831070435946693"><ele>509.0</ele><time>2026-03-30T08:29:59Z</time></trkpt><trkpt lat="41.913740064398475" lon="1.683014547436394"><ele>508.99999999999994</ele><time>2026-03-30T08:30:00Z</time></trkpt><trkpt lat="41.913757374561754" lon="1.6829290357430842"><ele>509.0</ele><time>2026-03-30T08:30:01Z</time></trkpt><trkpt lat="41.913766666075254" lon="1.6828336313579062"><ele>509.0</ele><time>2026-03-30T08:30:02Z</time></trkpt><trkpt lat="41.91376617289043" lon="1.6827292624123986"><ele>509.0</ele><time>2026-03-30T08:30:03Z</time></trkpt><trkpt lat="41.91375982857923" lon="1.6826166832868672"><ele>508.99999999999994</ele><time>2026-03-30T08:30:04Z</time></trkpt><trkpt lat="41.91373101477692" lon="1.6825078730298055"><ele>509.0</ele><time>2026-03-30T08:30:05Z</time></trkpt><trkpt lat="41.91367576083721" lon="1.6824093747464917"><ele>508.8333333333333</ele><time>2026-03-30T08:30:06Z</time></trkpt><trkpt lat="41.913603886218176" lon="1.6823275809540728"><ele>508.66666666666663</ele><time>2026-03-30T08:30:07Z</time></trkpt><trkpt lat="41.913543379039574" lon="1.6822405129513394"><ele>508.5</ele><time>2026-03-30T08:30:08Z</time></trkpt><trkpt lat="41.913478514687064" lon="1.6821718067673153"><ele>508.33333333333337</ele><time>2026-03-30T08:30:09Z</time></trkpt><trkpt lat="41.91341348505444" lon="1.6821252022199285"><ele>508.1666666666667</ele><time>2026-03-30T08:30:10Z</time></trkpt><trkpt lat="41.91336351718634" lon="1.6820648150906057"><ele>508.0</ele><time>2026-03-30T08:30:11Z</time></trkpt><trkpt lat="41.91331195629625" lon="1.6820082272608798"><ele>506.59999999999997</ele><time>2026-03-30T08:30:12Z</time></trkpt><trkpt lat="41.91326054772103" lon="1.6819559191252431"><ele>505.19999999999993</ele><time>2026-03-30T08:30:13Z</time></trkpt><trkpt lat="41.91315752853607" lon="1.6818456692192472"><ele>503.8</ele><time>2026-03-30T08:30:15Z</time></trkpt><trkpt lat="41.91308614634641" lon="1.6817734788647618"><ele>502.4</ele><time>2026-03-30T08:30:16Z</time></trkpt><trkpt lat="41.9130131282108" lon="1.6816764798255204"><ele>501.0</ele><time>2026-03-30T08:30:17Z</time></trkpt><trkpt lat="41.91293456563213" lon="1.6815750061603212"><ele>501.0</ele><time>2026-03-30T08:30:18Z</time></trkpt><trkpt lat="41.91287552323432" lon="1.6814668456022808"><ele>501.0</ele><time>2026-03-30T08:30:19Z</time></trkpt><trkpt lat="41.91286278223031" lon="1.6813515300859287"><ele>501.0</ele><time>2026-03-30T08:30:20Z</time></trkpt><trkpt lat="41.91284668355284" lon="1.6812517310077466"><ele>501.0</ele><time>2026-03-30T08:30:21Z</time></trkpt><trkpt lat="41.912823758277625" lon="1.6811361611753621"><ele>501.0</ele><time>2026-03-30T08:30:22Z</time></trkpt><trkpt lat="41.91281379200455" lon="1.6809954023415936"><ele>502.4</ele><time>2026-03-30T08:30:23Z</time></trkpt><trkpt lat="41.91281096407195" lon="1.680860004537334"><ele>503.8</ele><time>2026-03-30T08:30:24Z</time></trkpt><trkpt lat="41.91281867813066" lon="1.6807378438087215"><ele>505.19999999999993</ele><time>2026-03-30T08:30:25Z</time></trkpt><trkpt lat="41.912833825304055" lon="1.680619033423258"><ele>506.59999999999997</ele><time>2026-03-30T08:30:26Z</time></trkpt><trkpt lat="41.91285920220644" lon="1.6805045521538673"><ele>508.0</ele><time>2026-03-30T08:30:27Z</time></trkpt><trkpt lat="41.9128910527527" lon="1.6803901501094065"><ele>508.00000000000006</ele><time>2026-03-30T08:30:28Z</time></trkpt><trkpt lat="41.912920161841384" lon="1.680278081847159"><ele>508.0</ele><time>2026-03-30T08:30:29Z</time></trkpt><trkpt lat="41.91294587696998" lon="1.6801642414732079"><ele>508.0</ele><time>2026-03-30T08:30:30Z</time></trkpt><trkpt lat="41.912972209939795" lon="1.6800536239726058"><ele>508.0</ele><time>2026-03-30T08:30:31Z</time></trkpt><trkpt lat="41.91299639510452" lon="1.6799509164292716"><ele>508.00000000000006</ele><time>2026-03-30T08:30:32Z</time></trkpt><trkpt lat="41.91301119206174" lon="1.6798668739822695"><ele>508.0</ele><time>2026-03-30T08:30:33Z</time></trkpt><trkpt lat="41.91301512403288" lon="1.6797303189275559"><ele>508.1666666666667</ele><time>2026-03-30T08:30:35Z</time></trkpt><trkpt lat="41.91301765324584" lon="1.6796200216979629"><ele>508.33333333333337</ele><time>2026-03-30T08:30:37Z</time></trkpt><trkpt lat="41.91302265784381" lon="1.679496405371655"><ele>508.5</ele><time>2026-03-30T08:30:39Z</time></trkpt><trkpt lat="41.91303681349833" lon="1.6794002458713604"><ele>508.66666666666663</ele><time>2026-03-30T08:30:40Z</time></trkpt><trkpt lat="41.91306209149196" lon="1.6793096600632138"><ele>508.8333333333333</ele><time>2026-03-30T08:30:41Z</time></trkpt><trkpt lat="41.91312320912837" lon="1.679179574555543"><ele>509.0</ele><time>2026-03-30T08:30:43Z</time></trkpt><trkpt lat="41.91316922850793" lon="1.6790480923694135"><ele>508.4</ele><time>2026-03-30T08:30:45Z</time></trkpt><trkpt lat="41.91318548212539" lon="1.678963657059836"><ele>507.79999999999995</ele><time>2026-03-30T08:30:47Z</time></trkpt><trkpt lat="41.91322894095402" lon="1.6788822395381149"><ele>507.20000000000005</ele><time>2026-03-30T08:30:50Z</time></trkpt><trkpt lat="41.91319069817395" lon="1.6789696248839898"><ele>506.6</ele><time>2026-03-30T08:33:38Z</time></trkpt><trkpt lat="41.913199128464136" lon="1.6790601428942056"><ele>506.0</ele><time>2026-03-30T08:33:44Z</time></trkpt><trkpt lat="41.913031932431124" lon="1.6791076955692632"><ele>506.0</ele><time>2026-03-30T08:35:16Z</time></trkpt><trkpt lat="41.91315651910146" lon="1.679187735576947"><ele>506.0</ele><time>2026-03-30T08:35:59Z</time></trkpt><trkpt lat="41.91306994012517" lon="1.679164461774207"><ele>506.0</ele><time>2026-03-30T08:36:15Z</time></trkpt><trkpt lat="41.91297031462103" lon="1.679119045451789"><ele>506.0</ele><time>2026-03-30T08:36:32.026Z</time></trkpt><trkpt lat="41.91290691733637" lon="1.6790838143472608"><ele>506.0</ele><time>2026-03-30T08:36:35Z</time></trkpt><trkpt lat="41.913215502815156" lon="1.6791456722960356"><ele>506.00000000000006</ele><time>2026-03-30T08:41:59Z</time></trkpt><trkpt lat="41.91320769418594" lon="1.6790583508256995"><ele>506.0</ele><time>2026-03-30T08:42:36Z</time></trkpt><trkpt lat="41.9132217079636" lon="1.6789642498543593"><ele>506.00000000000006</ele><time>2026-03-30T08:42:42Z</time></trkpt><trkpt lat="41.91322357571715" lon="1.6788766558345642"><ele>506.00000000000006</ele><time>2026-03-30T08:42:49Z</time></trkpt><trkpt lat="41.9131618188057" lon="1.6788237802152535"><ele>506.0</ele><time>2026-03-30T08:42:56Z</time></trkpt><trkpt lat="41.913119725591116" lon="1.6787436138074656"><ele>506.00000000000006</ele><time>2026-03-30T08:43:04Z</time></trkpt><trkpt lat="41.91310515481153" lon="1.678654430023892"><ele>506.00000000000006</ele><time>2026-03-30T08:43:10Z</time></trkpt><trkpt lat="41.91308818658923" lon="1.6785727539189905"><ele>507.00000000000006</ele><time>2026-03-30T08:43:15Z</time></trkpt><trkpt lat="41.913059678110166" lon="1.678491411286535"><ele>508.0</ele><time>2026-03-30T08:43:24Z</time></trkpt><trkpt lat="41.91303424794474" lon="1.678386750358256"><ele>509.00000000000006</ele><time>2026-03-30T08:43:54Z</time></trkpt><trkpt lat="41.913017366164766" lon="1.6782965827570413"><ele>510.00000000000006</ele><time>2026-03-30T08:44:18Z</time></trkpt><trkpt lat="41.913068498461435" lon="1.6782466133516625"><ele>511.0</ele><time>2026-03-30T08:44:59Z</time></trkpt><trkpt lat="41.91302387653969" lon="1.6781783590394657"><ele>512.0000000000001</ele><time>2026-03-30T08:45:19Z</time></trkpt><trkpt lat="41.91305147233699" lon="1.678266512962102"><ele>513.0</ele><time>2026-03-30T08:45:45Z</time></trkpt><trkpt lat="41.91298908176886" lon="1.6783011733277016"><ele>513.0000000000001</ele><time>2026-03-30T08:45:53Z</time></trkpt><trkpt lat="41.91302611140316" lon="1.678374903182169"><ele>513.0</ele><time>2026-03-30T08:46:01Z</time></trkpt><trkpt lat="41.9130424859268" lon="1.6784701600060727"><ele>513.0</ele><time>2026-03-30T08:48:29Z</time></trkpt><trkpt lat="41.913083953761166" lon="1.6785641117879158"><ele>513.0</ele><time>2026-03-30T08:48:51Z</time></trkpt><trkpt lat="41.91312846408527" lon="1.678639467096354"><ele>513.0</ele><time>2026-03-30T08:48:59Z</time></trkpt><trkpt lat="41.91317319121586" lon="1.6787130561567134"><ele>513.0000000000001</ele><time>2026-03-30T08:49:06Z</time></trkpt><trkpt lat="41.913210183934304" lon="1.6787816219791811"><ele>513.0</ele><time>2026-03-30T08:49:12Z</time></trkpt><trkpt lat="41.913170761520206" lon="1.6788477820395966"><ele>512.0000000000001</ele><time>2026-03-30T08:49:30Z</time></trkpt><trkpt lat="41.913102796215135" lon="1.6788693495756004"><ele>511.0</ele><time>2026-03-30T08:49:37Z</time></trkpt><trkpt lat="41.913165824190685" lon="1.6788668905858177"><ele>510.00000000000006</ele><time>2026-03-30T08:56:48Z</time></trkpt><trkpt lat="41.91321325016611" lon="1.6787972962650635"><ele>509.00000000000006</ele><time>2026-03-30T08:56:54Z</time></trkpt><trkpt lat="41.913238813295294" lon="1.6788788152634264"><ele>508.0</ele><time>2026-03-30T08:57:29Z</time></trkpt><trkpt lat="41.913175316048466" lon="1.6788541427443593"><ele>507.00000000000006</ele><time>2026-03-30T09:01:28Z</time></trkpt><trkpt lat="41.913120170214974" lon="1.6787783795712017"><ele>506.00000000000006</ele><time>2026-03-30T09:01:33Z</time></trkpt><trkpt lat="41.91311077667391" lon="1.6786674577693412"><ele>505.99999999999994</ele><time>2026-03-30T09:01:36Z</time></trkpt><trkpt lat="41.91306527546339" lon="1.6785871750705397"><ele>506.0</ele><time>2026-03-30T09:01:39Z</time></trkpt><trkpt lat="41.91300042904054" lon="1.678581954592143"><ele>506.0</ele><time>2026-03-30T09:01:42Z</time></trkpt><trkpt lat="41.91293270239966" lon="1.6785831360651058"><ele>506.0</ele><time>2026-03-30T09:01:44Z</time></trkpt><trkpt lat="41.912849763657974" lon="1.6786120968133393"><ele>505.99999999999994</ele><time>2026-03-30T09:01:46Z</time></trkpt><trkpt lat="41.91276293649107" lon="1.6786902583617167"><ele>506.0</ele><time>2026-03-30T09:01:48Z</time></trkpt><trkpt lat="41.912710079493834" lon="1.678766503291326"><ele>506.0</ele><time>2026-03-30T09:01:49Z</time></trkpt><trkpt lat="41.91264802866155" lon="1.6788572431981241"><ele>506.0</ele><time>2026-03-30T09:01:50Z</time></trkpt><trkpt lat="41.91258333982094" lon="1.6789434872667393"><ele>506.0</ele><time>2026-03-30T09:01:51Z</time></trkpt><trkpt lat="41.912520182832445" lon="1.679024763089117"><ele>506.0</ele><time>2026-03-30T09:01:52Z</time></trkpt><trkpt lat="41.91245363128131" lon="1.6791100915620087"><ele>506.0</ele><time>2026-03-30T09:01:53Z</time></trkpt><trkpt lat="41.912386684732546" lon="1.6791979049551766"><ele>506.8</ele><time>2026-03-30T09:01:54Z</time></trkpt><trkpt lat="41.912327933223004" lon="1.6792773627493474"><ele>507.6</ele><time>2026-03-30T09:01:55Z</time></trkpt><trkpt lat="41.91226930151155" lon="1.6793587351098995"><ele>508.4</ele><time>2026-03-30T09:01:56Z</time></trkpt><trkpt lat="41.91212903960811" lon="1.6795058837736456"><ele>509.2</ele><time>2026-03-30T09:01:58Z</time></trkpt><trkpt lat="41.912073502556275" lon="1.679591577962965"><ele>510.0</ele><time>2026-03-30T09:01:59Z</time></trkpt><trkpt lat="41.91200498832619" lon="1.6796407641435078"><ele>511.4</ele><time>2026-03-30T09:02:00Z</time></trkpt><trkpt lat="41.91192925104462" lon="1.6796185264266215"><ele>512.8</ele><time>2026-03-30T09:02:01Z</time></trkpt><trkpt lat="41.91182114178923" lon="1.6795577737497525"><ele>514.2</ele><time>2026-03-30T09:02:03Z</time></trkpt><trkpt lat="41.91176196325746" lon="1.6795202415021535"><ele>515.6</ele><time>2026-03-30T09:02:04Z</time></trkpt><trkpt lat="41.91170559122898" lon="1.6794788937729"><ele>517.0</ele><time>2026-03-30T09:02:05Z</time></trkpt><trkpt lat="41.91159553875413" lon="1.679388474755685"><ele>517.0</ele><time>2026-03-30T09:02:07Z</time></trkpt><trkpt lat="41.91154256927576" lon="1.6793392822949227"><ele>517.0</ele><time>2026-03-30T09:02:08Z</time></trkpt><trkpt lat="41.911484940810304" lon="1.6792832583956496"><ele>517.0</ele><time>2026-03-30T09:02:09Z</time></trkpt><trkpt lat="41.911431004548945" lon="1.6792249045782657"><ele>517.0</ele><time>2026-03-30T09:02:10Z</time></trkpt><trkpt lat="41.9113744341368" lon="1.6791648858411126"><ele>517.0</ele><time>2026-03-30T09:02:11Z</time></trkpt><trkpt lat="41.911315553467375" lon="1.6791060358063659"><ele>517.0</ele><time>2026-03-30T09:02:12Z</time></trkpt><trkpt lat="41.911258301741455" lon="1.6790499683681317"><ele>517.0</ele><time>2026-03-30T09:02:13Z</time></trkpt><trkpt lat="41.91119917798676" lon="1.6789920671951335"><ele>517.0</ele><time>2026-03-30T09:02:14Z</time></trkpt><trkpt lat="41.91113441973476" lon="1.6789339136902668"><ele>517.0</ele><time>2026-03-30T09:02:15Z</time></trkpt><trkpt lat="41.91106833669972" lon="1.6788797787502834"><ele>517.0</ele><time>2026-03-30T09:02:16Z</time></trkpt><trkpt lat="41.910997772632335" lon="1.6788322077458424"><ele>517.0</ele><time>2026-03-30T09:02:17Z</time></trkpt><trkpt lat="41.91091738639492" lon="1.6787958220638488"><ele>517.0</ele><time>2026-03-30T09:02:18Z</time></trkpt><trkpt lat="41.91084431754814" lon="1.6787631369811402"><ele>517.0</ele><time>2026-03-30T09:02:19Z</time></trkpt><trkpt lat="41.91075618956094" lon="1.6787877051203968"><ele>516.3333333333334</ele><time>2026-03-30T09:02:20Z</time></trkpt><trkpt lat="41.91067175563995" lon="1.6788027663564242"><ele>515.6666666666667</ele><time>2026-03-30T09:02:21Z</time></trkpt><trkpt lat="41.91059003100332" lon="1.6788252471804113"><ele>515.0</ele><time>2026-03-30T09:02:22Z</time></trkpt><trkpt lat="41.910517813801114" lon="1.6788442696411694"><ele>514.3333333333334</ele><time>2026-03-30T09:02:23Z</time></trkpt><trkpt lat="41.91044115406244" lon="1.678863285549759"><ele>513.6666666666666</ele><time>2026-03-30T09:02:24Z</time></trkpt><trkpt lat="41.91036227180964" lon="1.6788776534033776"><ele>513.0</ele><time>2026-03-30T09:02:25Z</time></trkpt><trkpt lat="41.91028395021668" lon="1.6788818071423333"><ele>513.0</ele><time>2026-03-30T09:02:26Z</time></trkpt><trkpt lat="41.91020677741539" lon="1.6788672632177377"><ele>513.0</ele><time>2026-03-30T09:02:27Z</time></trkpt><trkpt lat="41.91013768612583" lon="1.6788138541807553"><ele>513.0</ele><time>2026-03-30T09:02:28Z</time></trkpt><trkpt lat="41.910056612358716" lon="1.6787459408804335"><ele>513.0</ele><time>2026-03-30T09:02:29Z</time></trkpt><trkpt lat="41.90997489229339" lon="1.678677199783523"><ele>513.0</ele><time>2026-03-30T09:02:30Z</time></trkpt><trkpt lat="41.90988966745176" lon="1.6786036895409426"><ele>515.1999999999999</ele><time>2026-03-30T09:02:31Z</time></trkpt><trkpt lat="41.90980721645907" lon="1.678531560559187"><ele>517.4</ele><time>2026-03-30T09:02:32Z</time></trkpt><trkpt lat="41.909726809954385" lon="1.6784607585722506"><ele>519.5999999999999</ele><time>2026-03-30T09:02:33Z</time></trkpt><trkpt lat="41.90965148174387" lon="1.6783809273797528"><ele>521.8</ele><time>2026-03-30T09:02:34Z</time></trkpt><trkpt lat="41.90958770482907" lon="1.6782968978896065"><ele>524.0</ele><time>2026-03-30T09:02:35Z</time></trkpt><trkpt lat="41.909563953492814" lon="1.678193837065679"><ele>524.0</ele><time>2026-03-30T09:02:36Z</time></trkpt><trkpt lat="41.90954637972102" lon="1.6780840370630938"><ele>524.0</ele><time>2026-03-30T09:02:37Z</time></trkpt><trkpt lat="41.909527096597465" lon="1.6779650210424284"><ele>524.0</ele><time>2026-03-30T09:02:38Z</time></trkpt><trkpt lat="41.90961552039047" lon="1.677722441315564"><ele>524.0</ele><time>2026-03-30T09:02:40Z</time></trkpt><trkpt lat="41.909680506285795" lon="1.677618083732676"><ele>525.0</ele><time>2026-03-30T09:02:41Z</time></trkpt><trkpt lat="41.90974880269639" lon="1.6775298840761717"><ele>526.0</ele><time>2026-03-30T09:02:42Z</time></trkpt><trkpt lat="41.9098149962729" lon="1.6774454379829649"><ele>527.0</ele><time>2026-03-30T09:02:43Z</time></trkpt><trkpt lat="41.90986361015147" lon="1.6773508212932295"><ele>528.0</ele><time>2026-03-30T09:02:44Z</time></trkpt><trkpt lat="41.90988664656062" lon="1.6772348885075223"><ele>529.0</ele><time>2026-03-30T09:02:45Z</time></trkpt><trkpt lat="41.90987516587272" lon="1.677110823306761"><ele>529.0</ele><time>2026-03-30T09:02:46Z</time></trkpt><trkpt lat="41.909831726359904" lon="1.6769926029021027"><ele>529.0</ele><time>2026-03-30T09:02:47Z</time></trkpt><trkpt lat="41.90975850605063" lon="1.6768923803593467"><ele>529.0</ele><time>2026-03-30T09:02:48Z</time></trkpt><trkpt lat="41.909684820035395" lon="1.6767897207080302"><ele>529.0</ele><time>2026-03-30T09:02:49Z</time></trkpt><trkpt lat="41.909615197507605" lon="1.676670338404521"><ele>529.0</ele><time>2026-03-30T09:02:50Z</time></trkpt><trkpt lat="41.909546917633726" lon="1.676564716660821"><ele>528.8</ele><time>2026-03-30T09:02:51Z</time></trkpt><trkpt lat="41.909473405506745" lon="1.676495303332779"><ele>528.5999999999999</ele><time>2026-03-30T09:02:52Z</time></trkpt><trkpt lat="41.90938067994451" lon="1.6764688815811293"><ele>528.4</ele><time>2026-03-30T09:02:53Z</time></trkpt><trkpt lat="41.909263252140114" lon="1.6764864687100816"><ele>528.1999999999999</ele><time>2026-03-30T09:02:54Z</time></trkpt><trkpt lat="41.90914681030528" lon="1.676572273843429"><ele>528.0</ele><time>2026-03-30T09:02:55Z</time></trkpt><trkpt lat="41.9090314570769" lon="1.6766698446651362"><ele>528.0</ele><time>2026-03-30T09:02:56Z</time></trkpt><trkpt lat="41.90893719648442" lon="1.6767435151627936"><ele>528.0</ele><time>2026-03-30T09:02:57Z</time></trkpt><trkpt lat="41.90882884455574" lon="1.6767683538596687"><ele>528.0</ele><time>2026-03-30T09:02:58Z</time></trkpt><trkpt lat="41.90873567001075" lon="1.6767576065595255"><ele>528.0</ele><time>2026-03-30T09:02:59Z</time></trkpt><trkpt lat="41.908648468726675" lon="1.6766902053979469"><ele>528.0</ele><time>2026-03-30T09:03:00Z</time></trkpt><trkpt lat="41.908613351787984" lon="1.676555017163212"><ele>528.0</ele><time>2026-03-30T09:03:01Z</time></trkpt><trkpt lat="41.908562639853564" lon="1.6764206428713946"><ele>528.0</ele><time>2026-03-30T09:03:02Z</time></trkpt><trkpt lat="41.908528214525894" lon="1.676265731772154"><ele>528.0</ele><time>2026-03-30T09:03:03Z</time></trkpt><trkpt lat="41.90848730411958" lon="1.6761053384790952"><ele>528.0</ele><time>2026-03-30T09:03:04Z</time></trkpt><trkpt lat="41.908447666192984" lon="1.675955378301714"><ele>528.5</ele><time>2026-03-30T09:03:05Z</time></trkpt><trkpt lat="41.90840939951337" lon="1.6758124962538976"><ele>529.0</ele><time>2026-03-30T09:03:06Z</time></trkpt><trkpt lat="41.908375610421096" lon="1.6756756512398525"><ele>529.5</ele><time>2026-03-30T09:03:07Z</time></trkpt><trkpt lat="41.90835354228583" lon="1.6755198283506942"><ele>530.0</ele><time>2026-03-30T09:03:08Z</time></trkpt><trkpt lat="41.908351843861844" lon="1.6753540470108477"><ele>531.0</ele><time>2026-03-30T09:03:09Z</time></trkpt><trkpt lat="41.90835777736854" lon="1.6751820979898726"><ele>532.0</ele><time>2026-03-30T09:03:10Z</time></trkpt><trkpt lat="41.90837675489262" lon="1.6750024856228236"><ele>533.0</ele><time>2026-03-30T09:03:11Z</time></trkpt><trkpt lat="41.90841843553031" lon="1.6748346566192174"><ele>534.0</ele><time>2026-03-30T09:03:12Z</time></trkpt><trkpt lat="41.90848869140657" lon="1.6746910290521833"><ele>538.5</ele><time>2026-03-30T09:03:13Z</time></trkpt><trkpt lat="41.90857683573767" lon="1.6745802851471947"><ele>543.0</ele><time>2026-03-30T09:03:14Z</time></trkpt><trkpt lat="41.90868529505768" lon="1.6745081323183657"><ele>547.5</ele><time>2026-03-30T09:03:15Z</time></trkpt><trkpt lat="41.90880725538959" lon="1.6744786678561703"><ele>552.0</ele><time>2026-03-30T09:03:16Z</time></trkpt><trkpt lat="41.90893400450654" lon="1.6744841640851236"><ele>552.0</ele><time>2026-03-30T09:03:17Z</time></trkpt><trkpt lat="41.909059024762385" lon="1.6744483411288773"><ele>552.0</ele><time>2026-03-30T09:03:18Z</time></trkpt><trkpt lat="41.909170255487645" lon="1.6743759272933134"><ele>552.0</ele><time>2026-03-30T09:03:19Z</time></trkpt><trkpt lat="41.9092591968097" lon="1.6742458086843464"><ele>552.0</ele><time>2026-03-30T09:03:20Z</time></trkpt><trkpt lat="41.909348804989094" lon="1.6741097619162308"><ele>555.25</ele><time>2026-03-30T09:03:21Z</time></trkpt><trkpt lat="41.909491559215695" lon="1.6740976646074979"><ele>558.5</ele><time>2026-03-30T09:03:22Z</time></trkpt><trkpt lat="41.90958657822494" lon="1.6740310189969447"><ele>561.75</ele><time>2026-03-30T09:03:23Z</time></trkpt><trkpt lat="41.90968297801934" lon="1.6739391993928925"><ele>565.0</ele><time>2026-03-30T09:03:24Z</time></trkpt><trkpt lat="41.909749719896396" lon="1.673786730189358"><ele>565.0</ele><time>2026-03-30T09:03:25Z</time></trkpt><trkpt lat="41.90979472063391" lon="1.6736204227296105"><ele>565.0</ele><time>2026-03-30T09:03:26Z</time></trkpt><trkpt lat="41.909837267469804" lon="1.6734643053905145"><ele>565.0</ele><time>2026-03-30T09:03:27Z</time></trkpt><trkpt lat="41.909900333965076" lon="1.673324562759884"><ele>565.0</ele><time>2026-03-30T09:03:28Z</time></trkpt><trkpt lat="41.90996428853683" lon="1.673192195265035"><ele>563.5</ele><time>2026-03-30T09:03:29Z</time></trkpt><trkpt lat="41.91002155341686" lon="1.673056612924051"><ele>562.0</ele><time>2026-03-30T09:03:30Z</time></trkpt><trkpt lat="41.91007071293056" lon="1.6729128950389187"><ele>560.5</ele><time>2026-03-30T09:03:31Z</time></trkpt><trkpt lat="41.91009478712439" lon="1.6727616304844586"><ele>559.0</ele><time>2026-03-30T09:03:32Z</time></trkpt><trkpt lat="41.91012188179541" lon="1.6725996842873811"><ele>558.25</ele><time>2026-03-30T09:03:33Z</time></trkpt><trkpt lat="41.91014869999447" lon="1.6724298541174165"><ele>557.5</ele><time>2026-03-30T09:03:34Z</time></trkpt><trkpt lat="41.910173165015415" lon="1.6722647172332665"><ele>556.75</ele><time>2026-03-30T09:03:35Z</time></trkpt><trkpt lat="41.91019997557924" lon="1.6721175272265754"><ele>556.0</ele><time>2026-03-30T09:03:36Z</time></trkpt><trkpt lat="41.910205389333036" lon="1.6719525955641847"><ele>555.6666666666667</ele><time>2026-03-30T09:03:37Z</time></trkpt><trkpt lat="41.91016727998407" lon="1.671771709197809"><ele>555.3333333333334</ele><time>2026-03-30T09:03:38Z</time></trkpt><trkpt lat="41.910080661252444" lon="1.6715823542086636"><ele>555.0</ele><time>2026-03-30T09:03:39Z</time></trkpt><trkpt lat="41.9099835976885" lon="1.6713957303400735"><ele>555.0</ele><time>2026-03-30T09:03:40Z</time></trkpt><trkpt lat="41.90989435256033" lon="1.671215384744812"><ele>555.0</ele><time>2026-03-30T09:03:41Z</time></trkpt><trkpt lat="41.90981251965115" lon="1.6710592703473028"><ele>555.0</ele><time>2026-03-30T09:03:42Z</time></trkpt><trkpt lat="41.9097320946592" lon="1.670916408771637"><ele>555.0</ele><time>2026-03-30T09:03:43Z</time></trkpt><trkpt lat="41.909655599975025" lon="1.6707821164836616"><ele>556.0</ele><time>2026-03-30T09:03:44Z</time></trkpt><trkpt lat="41.909584403158526" lon="1.670665555693897"><ele>557.0</ele><time>2026-03-30T09:03:45Z</time></trkpt><trkpt lat="41.90950857857445" lon="1.6705924594507215"><ele>558.0</ele><time>2026-03-30T09:03:46Z</time></trkpt><trkpt lat="41.90941449359734" lon="1.6705686789397318"><ele>559.0</ele><time>2026-03-30T09:03:47Z</time></trkpt><trkpt lat="41.90931109150485" lon="1.6705918111876215"><ele>560.0</ele><time>2026-03-30T09:03:48Z</time></trkpt><trkpt lat="41.9092123560134" lon="1.6706198051389676"><ele>561.2</ele><time>2026-03-30T09:03:49Z</time></trkpt><trkpt lat="41.90911431740169" lon="1.670587390810339"><ele>562.4</ele><time>2026-03-30T09:03:50Z</time></trkpt><trkpt lat="41.90902849975695" lon="1.670523411827969"><ele>563.6</ele><time>2026-03-30T09:03:51Z</time></trkpt><trkpt lat="41.90897927489516" lon="1.6703944894415161"><ele>564.8</ele><time>2026-03-30T09:03:52Z</time></trkpt><trkpt lat="41.90890937681299" lon="1.6702574472478664"><ele>566.0</ele><time>2026-03-30T09:03:53Z</time></trkpt><trkpt lat="41.908819816426956" lon="1.670130652622651"><ele>568.5</ele><time>2026-03-30T09:03:54Z</time></trkpt><trkpt lat="41.90873544016858" lon="1.6700037753569512"><ele>571.0</ele><time>2026-03-30T09:03:55Z</time></trkpt><trkpt lat="41.90864298714623" lon="1.6698915244381618"><ele>573.5</ele><time>2026-03-30T09:03:56Z</time></trkpt><trkpt lat="41.9085455200719" lon="1.6697928860851454"><ele>576.0</ele><time>2026-03-30T09:03:57Z</time></trkpt><trkpt lat="41.9084418378086" lon="1.6697041468978915"><ele>575.25</ele><time>2026-03-30T09:03:58Z</time></trkpt><trkpt lat="41.90835101762311" lon="1.6695963948702857"><ele>574.5</ele><time>2026-03-30T09:03:59Z</time></trkpt><trkpt lat="41.90825533037392" lon="1.669509694344298"><ele>573.75</ele><time>2026-03-30T09:04:00Z</time></trkpt><trkpt lat="41.908159478241046" lon="1.6694161908205678"><ele>573.0</ele><time>2026-03-30T09:04:01Z</time></trkpt><trkpt lat="41.90807716189811" lon="1.6692990992762902"><ele>575.5</ele><time>2026-03-30T09:04:02Z</time></trkpt><trkpt lat="41.90801933129987" lon="1.669146696917396"><ele>578.0</ele><time>2026-03-30T09:04:03Z</time></trkpt><trkpt lat="41.90798733807309" lon="1.6689758124404876"><ele>580.5</ele><time>2026-03-30T09:04:04Z</time></trkpt><trkpt lat="41.90794843553775" lon="1.6688060001851681"><ele>583.0</ele><time>2026-03-30T09:04:05Z</time></trkpt><trkpt lat="41.90790588726176" lon="1.6686277301629457"><ele>583.5</ele><time>2026-03-30T09:04:06Z</time></trkpt><trkpt lat="41.90786198888274" lon="1.668465096553192"><ele>584.0</ele><time>2026-03-30T09:04:07Z</time></trkpt><trkpt lat="41.9078757049169" lon="1.6683049819043339"><ele>584.5</ele><time>2026-03-30T09:04:08Z</time></trkpt><trkpt lat="41.907935283401905" lon="1.6681548961884554"><ele>585.0</ele><time>2026-03-30T09:04:09Z</time></trkpt><trkpt lat="41.90802977836309" lon="1.6680355042313402"><ele>585.0</ele><time>2026-03-30T09:04:10Z</time></trkpt><trkpt lat="41.90809550085303" lon="1.6678973266144226"><ele>585.0</ele><time>2026-03-30T09:04:11Z</time></trkpt><trkpt lat="41.908097971409816" lon="1.667704841957048"><ele>585.0</ele><time>2026-03-30T09:04:12Z</time></trkpt><trkpt lat="41.90805812261515" lon="1.667510243271975"><ele>585.0</ele><time>2026-03-30T09:04:13Z</time></trkpt><trkpt lat="41.90799751496884" lon="1.6673293451456535"><ele>584.75</ele><time>2026-03-30T09:04:14Z</time></trkpt><trkpt lat="41.90796083241196" lon="1.6671555521840744"><ele>584.5</ele><time>2026-03-30T09:04:15Z</time></trkpt><trkpt lat="41.90793675398823" lon="1.666986860547155"><ele>584.25</ele><time>2026-03-30T09:04:16Z</time></trkpt><trkpt lat="41.9079268834248" lon="1.6668232056345023"><ele>584.0</ele><time>2026-03-30T09:04:17Z</time></trkpt><trkpt lat="41.907935884626475" lon="1.666659966307096"><ele>582.75</ele><time>2026-03-30T09:04:18Z</time></trkpt><trkpt lat="41.90795304119817" lon="1.6664986590407036"><ele>581.5</ele><time>2026-03-30T09:04:19Z</time></trkpt><trkpt lat="41.907967082763236" lon="1.6663349125049598"><ele>580.25</ele><time>2026-03-30T09:04:20Z</time></trkpt><trkpt lat="41.907948217043455" lon="1.6661765355577092"><ele>579.0</ele><time>2026-03-30T09:04:21Z</time></trkpt><trkpt lat="41.90788855906556" lon="1.666038429938363"><ele>576.75</ele><time>2026-03-30T09:04:22Z</time></trkpt><trkpt lat="41.90779295533742" lon="1.6659179089671177"><ele>574.5</ele><time>2026-03-30T09:04:23Z</time></trkpt><trkpt lat="41.90767683417449" lon="1.6658223228853197"><ele>572.25</ele><time>2026-03-30T09:04:24Z</time></trkpt><trkpt lat="41.90755360404025" lon="1.665749883006086"><ele>570.0</ele><time>2026-03-30T09:04:25Z</time></trkpt><trkpt lat="41.907432006424074" lon="1.6656789039111348"><ele>573.25</ele><time>2026-03-30T09:04:26Z</time></trkpt><trkpt lat="41.90732543647558" lon="1.6655672923292362"><ele>576.5</ele><time>2026-03-30T09:04:27Z</time></trkpt><trkpt lat="41.90725897216986" lon="1.6654075715129462"><ele>579.75</ele><time>2026-03-30T09:04:28Z</time></trkpt><trkpt lat="41.90722178075906" lon="1.6652412764298028"><ele>583.0</ele><time>2026-03-30T09:04:29Z</time></trkpt><trkpt lat="41.9071944146972" lon="1.6650717177687666"><ele>583.0</ele><time>2026-03-30T09:04:30Z</time></trkpt><trkpt lat="41.90714626066744" lon="1.6649133213918268"><ele>583.0</ele><time>2026-03-30T09:04:31Z</time></trkpt><trkpt lat="41.90707271259403" lon="1.6647758335426381"><ele>583.0</ele><time>2026-03-30T09:04:32Z</time></trkpt><trkpt lat="41.90697653840532" lon="1.664647049311907"><ele>583.0</ele><time>2026-03-30T09:04:33Z</time></trkpt><trkpt lat="41.90686826150501" lon="1.664526286824212"><ele>579.75</ele><time>2026-03-30T09:04:34Z</time></trkpt><trkpt lat="41.90678828837879" lon="1.6644051259563086"><ele>576.5</ele><time>2026-03-30T09:04:35Z</time></trkpt><trkpt lat="41.90679551773089" lon="1.6642556928204504"><ele>573.25</ele><time>2026-03-30T09:04:36Z</time></trkpt><trkpt lat="41.90681646937633" lon="1.6640711149414424"><ele>570.0</ele><time>2026-03-30T09:04:37Z</time></trkpt><trkpt lat="41.9067829614692" lon="1.6639219467444364"><ele>575.5</ele><time>2026-03-30T09:04:38Z</time></trkpt><trkpt lat="41.906715339412195" lon="1.6637844019157217"><ele>581.0</ele><time>2026-03-30T09:04:39Z</time></trkpt><trkpt lat="41.906627536753376" lon="1.6636457781908303"><ele>586.5</ele><time>2026-03-30T09:04:40Z</time></trkpt><trkpt lat="41.90656230335484" lon="1.6634945292999193"><ele>592.0</ele><time>2026-03-30T09:04:41Z</time></trkpt><trkpt lat="41.906482687195485" lon="1.6633450045669673"><ele>592.0</ele><time>2026-03-30T09:04:42Z</time></trkpt><trkpt lat="41.90639029923968" lon="1.6632081953288664"><ele>592.0</ele><time>2026-03-30T09:04:43Z</time></trkpt><trkpt lat="41.90632700782144" lon="1.6630458254935367"><ele>592.0</ele><time>2026-03-30T09:04:44Z</time></trkpt><trkpt lat="41.90625757467978" lon="1.6628859847731794"><ele>592.0</ele><time>2026-03-30T09:04:45Z</time></trkpt><trkpt lat="41.906221123544434" lon="1.6627127340845522"><ele>593.5</ele><time>2026-03-30T09:04:46Z</time></trkpt><trkpt lat="41.906218147945296" lon="1.6625268910542768"><ele>595.0</ele><time>2026-03-30T09:04:47Z</time></trkpt><trkpt lat="41.90623234220316" lon="1.6623261590556766"><ele>596.5</ele><time>2026-03-30T09:04:48Z</time></trkpt><trkpt lat="41.9062329140953" lon="1.662126532522765"><ele>598.0</ele><time>2026-03-30T09:04:49Z</time></trkpt><trkpt lat="41.906247093969704" lon="1.6619291513954997"><ele>598.0</ele><time>2026-03-30T09:04:50Z</time></trkpt><trkpt lat="41.9062589710717" lon="1.661726008980201"><ele>598.0</ele><time>2026-03-30T09:04:51Z</time></trkpt><trkpt lat="41.906270323033134" lon="1.661522922953069"><ele>598.0</ele><time>2026-03-30T09:04:52Z</time></trkpt><trkpt lat="41.90627901330117" lon="1.6613158570560886"><ele>596.6666666666667</ele><time>2026-03-30T09:04:53Z</time></trkpt><trkpt lat="41.90629410969473" lon="1.6610994156581222"><ele>595.3333333333334</ele><time>2026-03-30T09:04:54Z</time></trkpt><trkpt lat="41.90631036281183" lon="1.6608733782282663"><ele>594.0</ele><time>2026-03-30T09:04:55Z</time></trkpt><trkpt lat="41.90632528027353" lon="1.6606348604840364"><ele>594.0</ele><time>2026-03-30T09:04:56Z</time></trkpt><trkpt lat="41.906338310135006" lon="1.660413565873006"><ele>594.0</ele><time>2026-03-30T09:04:57Z</time></trkpt><trkpt lat="41.90633982749404" lon="1.6601849748394994"><ele>594.0</ele><time>2026-03-30T09:04:58Z</time></trkpt><trkpt lat="41.906331721817956" lon="1.659971679967465"><ele>592.6666666666666</ele><time>2026-03-30T09:04:59Z</time></trkpt><trkpt lat="41.906294546206006" lon="1.6597662872710754"><ele>591.3333333333333</ele><time>2026-03-30T09:05:00Z</time></trkpt><trkpt lat="41.9062233626518" lon="1.6595706129024774"><ele>590.0</ele><time>2026-03-30T09:05:01Z</time></trkpt><trkpt lat="41.90613229689636" lon="1.6593851024400184"><ele>589.0</ele><time>2026-03-30T09:05:02Z</time></trkpt><trkpt lat="41.9060342162363" lon="1.65919888843169"><ele>588.0</ele><time>2026-03-30T09:05:03Z</time></trkpt><trkpt lat="41.90594071044389" lon="1.6590018730500127"><ele>587.0</ele><time>2026-03-30T09:05:04Z</time></trkpt><trkpt lat="41.90584574635521" lon="1.6587979601609506"><ele>587.0</ele><time>2026-03-30T09:05:05Z</time></trkpt><trkpt lat="41.905764295111304" lon="1.6585818230017848"><ele>587.0</ele><time>2026-03-30T09:05:06Z</time></trkpt><trkpt lat="41.90566771552965" lon="1.6583695257904914"><ele>587.0</ele><time>2026-03-30T09:05:07Z</time></trkpt><trkpt lat="41.9055696691406" lon="1.6581540039808775"><ele>587.0</ele><time>2026-03-30T09:05:08Z</time></trkpt><trkpt lat="41.90547059606376" lon="1.6579351875348576"><ele>587.0</ele><time>2026-03-30T09:05:09Z</time></trkpt><trkpt lat="41.90535778870905" lon="1.6577268829113068"><ele>587.0</ele><time>2026-03-30T09:05:10Z</time></trkpt><trkpt lat="41.905274625680725" lon="1.6575013669196532"><ele>587.0</ele><time>2026-03-30T09:05:11Z</time></trkpt><trkpt lat="41.90517321760432" lon="1.657283564544899"><ele>587.0</ele><time>2026-03-30T09:05:12Z</time></trkpt><trkpt lat="41.90507447353438" lon="1.657065011864128"><ele>587.0</ele><time>2026-03-30T09:05:13Z</time></trkpt><trkpt lat="41.904986038502024" lon="1.6568376626916428"><ele>587.0</ele><time>2026-03-30T09:05:14Z</time></trkpt><trkpt lat="41.90491619172459" lon="1.65659293949349"><ele>587.0</ele><time>2026-03-30T09:05:15Z</time></trkpt><trkpt lat="41.904862076464994" lon="1.65634436871334"><ele>587.0</ele><time>2026-03-30T09:05:16Z</time></trkpt><trkpt lat="41.904803831123374" lon="1.6561057251831717"><ele>585.3333333333333</ele><time>2026-03-30T09:05:17Z</time></trkpt><trkpt lat="41.90476175379012" lon="1.6558668544269992"><ele>583.6666666666666</ele><time>2026-03-30T09:05:18Z</time></trkpt><trkpt lat="41.904716713569215" lon="1.6556424793633413"><ele>582.0</ele><time>2026-03-30T09:05:19Z</time></trkpt><trkpt lat="41.9046772206562" lon="1.6554402196078668"><ele>580.3333333333334</ele><time>2026-03-30T09:05:20Z</time></trkpt><trkpt lat="41.90462876253554" lon="1.6552417672846593"><ele>578.6666666666667</ele><time>2026-03-30T09:05:21Z</time></trkpt><trkpt lat="41.90456818398952" lon="1.6550351118566013"><ele>577.0</ele><time>2026-03-30T09:05:22Z</time></trkpt><trkpt lat="41.9045059289749" lon="1.6548066676774187"><ele>577.0</ele><time>2026-03-30T09:05:23Z</time></trkpt><trkpt lat="41.90442609014685" lon="1.6545643772554597"><ele>577.0</ele><time>2026-03-30T09:05:24Z</time></trkpt><trkpt lat="41.90433108386606" lon="1.654329162909948"><ele>577.0</ele><time>2026-03-30T09:05:25Z</time></trkpt><trkpt lat="41.90425322972006" lon="1.6540935609357053"><ele>580.3333333333334</ele><time>2026-03-30T09:05:26Z</time></trkpt><trkpt lat="41.904191514691504" lon="1.6538525014009866"><ele>583.6666666666666</ele><time>2026-03-30T09:05:27Z</time></trkpt><trkpt lat="41.90411753529896" lon="1.6536279929229944"><ele>587.0</ele><time>2026-03-30T09:05:28Z</time></trkpt><trkpt lat="41.90404442617687" lon="1.6534061256072947"><ele>587.0</ele><time>2026-03-30T09:05:29Z</time></trkpt><trkpt lat="41.90395433789815" lon="1.6531867038389814"><ele>587.0</ele><time>2026-03-30T09:05:30Z</time></trkpt><trkpt lat="41.90387936729282" lon="1.652957579558239"><ele>587.0</ele><time>2026-03-30T09:05:31Z</time></trkpt><trkpt lat="41.90380429113847" lon="1.6527275092280593"><ele>587.3333333333333</ele><time>2026-03-30T09:05:32Z</time></trkpt><trkpt lat="41.903729536855856" lon="1.652501821910676"><ele>587.6666666666666</ele><time>2026-03-30T09:05:33Z</time></trkpt><trkpt lat="41.90365814035603" lon="1.652281037146995"><ele>588.0</ele><time>2026-03-30T09:05:34Z</time></trkpt><trkpt lat="41.90358456398098" lon="1.6520574491142437"><ele>587.0</ele><time>2026-03-30T09:05:35Z</time></trkpt><trkpt lat="41.90351001867075" lon="1.6518293927028649"><ele>586.0</ele><time>2026-03-30T09:05:36Z</time></trkpt><trkpt lat="41.903433739469904" lon="1.6515987748056467"><ele>585.0</ele><time>2026-03-30T09:05:37Z</time></trkpt><trkpt lat="41.90335334219907" lon="1.6513677409178682"><ele>588.3333333333334</ele><time>2026-03-30T09:05:38Z</time></trkpt><trkpt lat="41.903278365197586" lon="1.6511372219952933"><ele>591.6666666666667</ele><time>2026-03-30T09:05:39Z</time></trkpt><trkpt lat="41.90320085320916" lon="1.6508976477994313"><ele>595.0</ele><time>2026-03-30T09:05:40Z</time></trkpt><trkpt lat="41.903116781289384" lon="1.6506424267727262"><ele>595.3333333333334</ele><time>2026-03-30T09:05:41Z</time></trkpt><trkpt lat="41.90303146302196" lon="1.6503914017870858"><ele>595.6666666666666</ele><time>2026-03-30T09:05:42Z</time></trkpt><trkpt lat="41.902954384341704" lon="1.650158561514074"><ele>596.0</ele><time>2026-03-30T09:05:43Z</time></trkpt><trkpt lat="41.90287886937662" lon="1.6499280727062402"><ele>596.0</ele><time>2026-03-30T09:05:44Z</time></trkpt><trkpt lat="41.902800997081954" lon="1.6496890391226415"><ele>596.0</ele><time>2026-03-30T09:05:45Z</time></trkpt><trkpt lat="41.902720222407716" lon="1.6494401791593498"><ele>596.0</ele><time>2026-03-30T09:05:46Z</time></trkpt><trkpt lat="41.90263980830737" lon="1.649190373804269"><ele>597.6666666666666</ele><time>2026-03-30T09:05:47Z</time></trkpt><trkpt lat="41.90256050983419" lon="1.6489462338486445"><ele>599.3333333333334</ele><time>2026-03-30T09:05:48Z</time></trkpt><trkpt lat="41.902480020930476" lon="1.6487079451226896"><ele>601.0</ele><time>2026-03-30T09:05:49Z</time></trkpt><trkpt lat="41.90238987894918" lon="1.648474193231786"><ele>602.0</ele><time>2026-03-30T09:05:50Z</time></trkpt><trkpt lat="41.90228402428156" lon="1.6482481226024266"><ele>603.0</ele><time>2026-03-30T09:05:51Z</time></trkpt><trkpt lat="41.90216925263522" lon="1.6480230027216356"><ele>604.0</ele><time>2026-03-30T09:05:52Z</time></trkpt><trkpt lat="41.90205228348296" lon="1.647798092623152"><ele>603.0</ele><time>2026-03-30T09:05:53Z</time></trkpt><trkpt lat="41.901933118137165" lon="1.6475783436444678"><ele>602.0</ele><time>2026-03-30T09:05:54Z</time></trkpt><trkpt lat="41.901826770197545" lon="1.6473491159453648"><ele>601.0</ele><time>2026-03-30T09:05:55Z</time></trkpt><trkpt lat="41.90171271502053" lon="1.6471298347092564"><ele>601.6666666666667</ele><time>2026-03-30T09:05:56Z</time></trkpt><trkpt lat="41.90159964384853" lon="1.6469111272194068"><ele>602.3333333333334</ele><time>2026-03-30T09:05:57Z</time></trkpt><trkpt lat="41.90148326734265" lon="1.6466925981657967"><ele>603.0</ele><time>2026-03-30T09:05:58Z</time></trkpt><trkpt lat="41.90136976141924" lon="1.6464763345031892"><ele>603.0</ele><time>2026-03-30T09:05:59Z</time></trkpt><trkpt lat="41.90124252643519" lon="1.646266717332596"><ele>603.0</ele><time>2026-03-30T09:06:00Z</time></trkpt><trkpt lat="41.90110521047119" lon="1.6460708616019344"><ele>603.0</ele><time>2026-03-30T09:06:01Z</time></trkpt><trkpt lat="41.90096359045353" lon="1.6458782947709663"><ele>602.0</ele><time>2026-03-30T09:06:02Z</time></trkpt><trkpt lat="41.90082341825332" lon="1.6456907164297327"><ele>601.0</ele><time>2026-03-30T09:06:03Z</time></trkpt><trkpt lat="41.90069017553804" lon="1.6455072784534364"><ele>600.0</ele><time>2026-03-30T09:06:04Z</time></trkpt><trkpt lat="41.90056304670648" lon="1.6453108741342028"><ele>601.0</ele><time>2026-03-30T09:06:05Z</time></trkpt><trkpt lat="41.90044246891491" lon="1.6451078290944026"><ele>602.0</ele><time>2026-03-30T09:06:06Z</time></trkpt><trkpt lat="41.90033427600381" lon="1.6448928692446978"><ele>603.0</ele><time>2026-03-30T09:06:07Z</time></trkpt><trkpt lat="41.90022886473969" lon="1.644679227523762"><ele>603.0</ele><time>2026-03-30T09:06:08Z</time></trkpt><trkpt lat="41.90012615036254" lon="1.6444652148715906"><ele>603.0</ele><time>2026-03-30T09:06:09Z</time></trkpt><trkpt lat="41.90002044856076" lon="1.6442516510817031"><ele>603.0</ele><time>2026-03-30T09:06:10Z</time></trkpt><trkpt lat="41.899917132133176" lon="1.6440330908645095"><ele>602.6666666666666</ele><time>2026-03-30T09:06:11Z</time></trkpt><trkpt lat="41.89981111383011" lon="1.6438113392960472"><ele>602.3333333333333</ele><time>2026-03-30T09:06:12Z</time></trkpt><trkpt lat="41.89970371776544" lon="1.6435881458336277"><ele>602.0</ele><time>2026-03-30T09:06:13Z</time></trkpt><trkpt lat="41.89959579072576" lon="1.6433697888344758"><ele>604.0</ele><time>2026-03-30T09:06:14Z</time></trkpt><trkpt lat="41.8994911349621" lon="1.6431526989020964"><ele>606.0</ele><time>2026-03-30T09:06:15Z</time></trkpt><trkpt lat="41.89939739805776" lon="1.6429295212680202"><ele>608.0</ele><time>2026-03-30T09:06:16Z</time></trkpt><trkpt lat="41.89932391038369" lon="1.642685670198631"><ele>608.6666666666666</ele><time>2026-03-30T09:06:17Z</time></trkpt><trkpt lat="41.8992687230302" lon="1.6424298512425561"><ele>609.3333333333334</ele><time>2026-03-30T09:06:18Z</time></trkpt><trkpt lat="41.899199538534894" lon="1.6421825749024206"><ele>610.0</ele><time>2026-03-30T09:06:19Z</time></trkpt><trkpt lat="41.89915210747759" lon="1.6419304486695911"><ele>607.3333333333334</ele><time>2026-03-30T09:06:20Z</time></trkpt><trkpt lat="41.8991009476757" lon="1.6416801421057756"><ele>604.6666666666666</ele><time>2026-03-30T09:06:21Z</time></trkpt><trkpt lat="41.899047496322595" lon="1.6414332518253545"><ele>602.0</ele><time>2026-03-30T09:06:22Z</time></trkpt><trkpt lat="41.89899639094727" lon="1.6411920016677088"><ele>603.3333333333333</ele><time>2026-03-30T09:06:23Z</time></trkpt><trkpt lat="41.89894847651214" lon="1.6409554825591854"><ele>604.6666666666666</ele><time>2026-03-30T09:06:24Z</time></trkpt><trkpt lat="41.89889959087296" lon="1.6407313636433594"><ele>606.0</ele><time>2026-03-30T09:06:25Z</time></trkpt><trkpt lat="41.89884035440953" lon="1.640512029700691"><ele>608.0</ele><time>2026-03-30T09:06:26Z</time></trkpt><trkpt lat="41.89876366569152" lon="1.6402835072043827"><ele>610.0</ele><time>2026-03-30T09:06:27Z</time></trkpt><trkpt lat="41.898684376047854" lon="1.6400663319831998"><ele>612.0</ele><time>2026-03-30T09:06:28Z</time></trkpt><trkpt lat="41.89859778213578" lon="1.639859542007624"><ele>612.0</ele><time>2026-03-30T09:06:29Z</time></trkpt><trkpt lat="41.898501046825906" lon="1.639659060598229"><ele>612.0</ele><time>2026-03-30T09:06:30Z</time></trkpt><trkpt lat="41.89837072148223" lon="1.6394729210900683"><ele>612.0</ele><time>2026-03-30T09:06:31Z</time></trkpt><trkpt lat="41.8982020777917" lon="1.6393170138055233"><ele>611.3333333333334</ele><time>2026-03-30T09:06:32Z</time></trkpt><trkpt lat="41.89802153187689" lon="1.6391783228274028"><ele>610.6666666666667</ele><time>2026-03-30T09:06:33Z</time></trkpt><trkpt lat="41.89784554766003" lon="1.6390413782445066"><ele>610.0</ele><time>2026-03-30T09:06:34Z</time></trkpt><trkpt lat="41.897677167305424" lon="1.6388989624720585"><ele>611.6666666666667</ele><time>2026-03-30T09:06:35Z</time></trkpt><trkpt lat="41.89751945690059" lon="1.6387545348663943"><ele>613.3333333333334</ele><time>2026-03-30T09:06:36Z</time></trkpt><trkpt lat="41.897362827703255" lon="1.6386006917967355"><ele>615.0</ele><time>2026-03-30T09:06:37Z</time></trkpt><trkpt lat="41.897225437610146" lon="1.6384172241307828"><ele>615.0</ele><time>2026-03-30T09:06:38Z</time></trkpt><trkpt lat="41.89707631067634" lon="1.63825664585618"><ele>615.0</ele><time>2026-03-30T09:06:39Z</time></trkpt><trkpt lat="41.89694150417564" lon="1.6380767282854614"><ele>615.0</ele><time>2026-03-30T09:06:40Z</time></trkpt><trkpt lat="41.89680598369323" lon="1.6379026309868303"><ele>616.6666666666666</ele><time>2026-03-30T09:06:41Z</time></trkpt><trkpt lat="41.89667330443276" lon="1.6377334687228924"><ele>618.3333333333333</ele><time>2026-03-30T09:06:42Z</time></trkpt><trkpt lat="41.896545559390404" lon="1.6375561752841188"><ele>620.0</ele><time>2026-03-30T09:06:43Z</time></trkpt><trkpt lat="41.89643676708665" lon="1.6373615978942233"><ele>620.0</ele><time>2026-03-30T09:06:44Z</time></trkpt><trkpt lat="41.896327778791274" lon="1.6371786792169496"><ele>620.0</ele><time>2026-03-30T09:06:45Z</time></trkpt><trkpt lat="41.89623671315903" lon="1.6370062116773227"><ele>620.0</ele><time>2026-03-30T09:06:46Z</time></trkpt><trkpt lat="41.89615938068703" lon="1.6368209458545753"><ele>624.3333333333333</ele><time>2026-03-30T09:06:47Z</time></trkpt><trkpt lat="41.89611857196018" lon="1.6366094550450874"><ele>628.6666666666666</ele><time>2026-03-30T09:06:48Z</time></trkpt><trkpt lat="41.89609985713143" lon="1.636389576774163"><ele>633.0</ele><time>2026-03-30T09:06:49Z</time></trkpt><trkpt lat="41.896071778149455" lon="1.6361573590845764"><ele>637.0</ele><time>2026-03-30T09:06:50Z</time></trkpt><trkpt lat="41.896053217823436" lon="1.6359272274489807"><ele>641.0</ele><time>2026-03-30T09:06:51Z</time></trkpt><trkpt lat="41.89602132697969" lon="1.6356806710001015"><ele>645.0</ele><time>2026-03-30T09:06:52Z</time></trkpt><trkpt lat="41.895960661218155" lon="1.6354288426549366"><ele>640.6666666666666</ele><time>2026-03-30T09:06:53Z</time></trkpt><trkpt lat="41.89588764427322" lon="1.6352037648949196"><ele>636.3333333333333</ele><time>2026-03-30T09:06:54Z</time></trkpt><trkpt lat="41.895806044402335" lon="1.634993886429129"><ele>632.0</ele><time>2026-03-30T09:06:55Z</time></trkpt><trkpt lat="41.89572624726996" lon="1.6347873721758757"><ele>632.0</ele><time>2026-03-30T09:06:56Z</time></trkpt><trkpt lat="41.89565487576781" lon="1.6345839462582152"><ele>632.0</ele><time>2026-03-30T09:06:57Z</time></trkpt><trkpt lat="41.89557649174119" lon="1.634384377866424"><ele>632.0</ele><time>2026-03-30T09:06:58Z</time></trkpt><trkpt lat="41.89547989985154" lon="1.6342042976497466"><ele>630.0</ele><time>2026-03-30T09:06:59Z</time></trkpt><trkpt lat="41.89534956986477" lon="1.6340606245763751"><ele>628.0</ele><time>2026-03-30T09:07:00Z</time></trkpt><trkpt lat="41.895193163936824" lon="1.6339831380393575"><ele>626.0</ele><time>2026-03-30T09:07:01Z</time></trkpt><trkpt lat="41.89502466229525" lon="1.6339613085849123"><ele>626.0</ele><time>2026-03-30T09:07:02Z</time></trkpt><trkpt lat="41.894878140603964" lon="1.6338910817570318"><ele>626.0</ele><time>2026-03-30T09:07:03Z</time></trkpt><trkpt lat="41.894732728308654" lon="1.6337713553828435"><ele>626.0</ele><time>2026-03-30T09:07:04Z</time></trkpt><trkpt lat="41.89458299614265" lon="1.6336445369693666"><ele>628.0</ele><time>2026-03-30T09:07:05Z</time></trkpt><trkpt lat="41.89445942580567" lon="1.6335004859960354"><ele>630.0</ele><time>2026-03-30T09:07:06Z</time></trkpt><trkpt lat="41.89434496508637" lon="1.6333484142013979"><ele>632.0</ele><time>2026-03-30T09:07:07Z</time></trkpt><trkpt lat="41.89420617273553" lon="1.6332416666320937"><ele>632.0</ele><time>2026-03-30T09:07:08Z</time></trkpt><trkpt lat="41.89408221223865" lon="1.6331221256367368"><ele>632.0</ele><time>2026-03-30T09:07:09Z</time></trkpt><trkpt lat="41.89395895536374" lon="1.633013685095066"><ele>632.0</ele><time>2026-03-30T09:07:10Z</time></trkpt><trkpt lat="41.89385702396809" lon="1.632888156416199"><ele>632.0</ele><time>2026-03-30T09:07:11Z</time></trkpt><trkpt lat="41.89378632924206" lon="1.6327283927051026"><ele>634.5</ele><time>2026-03-30T09:07:12Z</time></trkpt><trkpt lat="41.893745107670775" lon="1.632527732346548"><ele>637.0</ele><time>2026-03-30T09:07:13Z</time></trkpt><trkpt lat="41.89370676154334" lon="1.6323429274999068"><ele>639.5</ele><time>2026-03-30T09:07:14Z</time></trkpt><trkpt lat="41.89368824730124" lon="1.6321496649545901"><ele>642.0</ele><time>2026-03-30T09:07:15Z</time></trkpt><trkpt lat="41.893667197789334" lon="1.631959931127708"><ele>640.3333333333334</ele><time>2026-03-30T09:07:16Z</time></trkpt><trkpt lat="41.89359291319063" lon="1.6317710580133211"><ele>638.6666666666667</ele><time>2026-03-30T09:07:17Z</time></trkpt><trkpt lat="41.89348795033676" lon="1.6316059162187408"><ele>637.0</ele><time>2026-03-30T09:07:18Z</time></trkpt><trkpt lat="41.89335268405215" lon="1.6314935969908828"><ele>637.0</ele><time>2026-03-30T09:07:19Z</time></trkpt><trkpt lat="41.893233603234194" lon="1.6313644374181884"><ele>637.0</ele><time>2026-03-30T09:07:20Z</time></trkpt><trkpt lat="41.89314509356793" lon="1.631201166214358"><ele>637.0</ele><time>2026-03-30T09:07:21Z</time></trkpt><trkpt lat="41.89307217394735" lon="1.6310242301550788"><ele>641.0</ele><time>2026-03-30T09:07:22Z</time></trkpt><trkpt lat="41.893015238883976" lon="1.6308193315700639"><ele>645.0</ele><time>2026-03-30T09:07:23Z</time></trkpt><trkpt lat="41.89295463825319" lon="1.6306100056211614"><ele>649.0</ele><time>2026-03-30T09:07:24Z</time></trkpt><trkpt lat="41.892889616041266" lon="1.6303960067972318"><ele>653.0</ele><time>2026-03-30T09:07:25Z</time></trkpt><trkpt lat="41.892833405311976" lon="1.6301764230547828"><ele>657.0</ele><time>2026-03-30T09:07:26Z</time></trkpt><trkpt lat="41.89272444261581" lon="1.6299928245303517"><ele>661.0</ele><time>2026-03-30T09:07:27Z</time></trkpt><trkpt lat="41.89261259034459" lon="1.629805520509729"><ele>661.0</ele><time>2026-03-30T09:07:28Z</time></trkpt><trkpt lat="41.89247747062752" lon="1.6296522086290823"><ele>661.0</ele><time>2026-03-30T09:07:29Z</time></trkpt><trkpt lat="41.8923365546299" lon="1.6294940412515664"><ele>661.0</ele><time>2026-03-30T09:07:30Z</time></trkpt><trkpt lat="41.892193401621356" lon="1.6293261319775947"><ele>661.0</ele><time>2026-03-30T09:07:31Z</time></trkpt><trkpt lat="41.89205335688921" lon="1.62916719566866"><ele>661.0</ele><time>2026-03-30T09:07:32Z</time></trkpt><trkpt lat="41.891910733117946" lon="1.6290292149245054"><ele>661.0</ele><time>2026-03-30T09:07:33Z</time></trkpt><trkpt lat="41.891824529374205" lon="1.6288387092051144"><ele>659.6666666666667</ele><time>2026-03-30T09:07:34Z</time></trkpt><trkpt lat="41.89176949722004" lon="1.6286337396637933"><ele>658.3333333333334</ele><time>2026-03-30T09:07:35Z</time></trkpt><trkpt lat="41.89172470211975" lon="1.6284091521900161"><ele>657.0</ele><time>2026-03-30T09:07:36Z</time></trkpt><trkpt lat="41.89168509419166" lon="1.6281773664168404"><ele>657.0</ele><time>2026-03-30T09:07:37Z</time></trkpt><trkpt lat="41.89162048254012" lon="1.6279564154346187"><ele>657.0</ele><time>2026-03-30T09:07:38Z</time></trkpt><trkpt lat="41.89150550365872" lon="1.6277673753572837"><ele>657.0</ele><time>2026-03-30T09:07:39Z</time></trkpt><trkpt lat="41.89139482142117" lon="1.6275873235745735"><ele>661.0</ele><time>2026-03-30T09:07:40Z</time></trkpt><trkpt lat="41.89129810302872" lon="1.6273650875555814"><ele>665.0</ele><time>2026-03-30T09:07:41Z</time></trkpt><trkpt lat="41.89119895694314" lon="1.627139442574806"><ele>669.0</ele><time>2026-03-30T09:07:42Z</time></trkpt><trkpt lat="41.891075351234214" lon="1.626945571325348"><ele>667.3333333333334</ele><time>2026-03-30T09:07:43Z</time></trkpt><trkpt lat="41.89095461728333" lon="1.6267481693972659"><ele>665.6666666666667</ele><time>2026-03-30T09:07:44Z</time></trkpt><trkpt lat="41.89083501898493" lon="1.6265477906051755"><ele>664.0</ele><time>2026-03-30T09:07:45Z</time></trkpt><trkpt lat="41.89072470500343" lon="1.6263418600845376"><ele>664.0</ele><time>2026-03-30T09:07:46Z</time></trkpt><trkpt lat="41.89059655661331" lon="1.6261597805775616"><ele>664.0</ele><time>2026-03-30T09:07:47Z</time></trkpt><trkpt lat="41.89046014559302" lon="1.6259878881671845"><ele>664.0</ele><time>2026-03-30T09:07:48Z</time></trkpt><trkpt lat="41.890321437247096" lon="1.625829455739411"><ele>664.0</ele><time>2026-03-30T09:07:49Z</time></trkpt><trkpt lat="41.89018377814972" lon="1.6256691576899034"><ele>664.0</ele><time>2026-03-30T09:07:50Z</time></trkpt><trkpt lat="41.89004334089386" lon="1.6255117031048727"><ele>664.0</ele><time>2026-03-30T09:07:51Z</time></trkpt><trkpt lat="41.88989719701479" lon="1.6253765145739543"><ele>668.5</ele><time>2026-03-30T09:07:52Z</time></trkpt><trkpt lat="41.88974964935944" lon="1.6252804080942924"><ele>673.0</ele><time>2026-03-30T09:07:53Z</time></trkpt><trkpt lat="41.889618786972335" lon="1.6252107644541545"><ele>677.5</ele><time>2026-03-30T09:07:54Z</time></trkpt><trkpt lat="41.88950738644024" lon="1.6251277050399862"><ele>682.0</ele><time>2026-03-30T09:07:55Z</time></trkpt><trkpt lat="41.8894419263166" lon="1.6249973327831568"><ele>682.0</ele><time>2026-03-30T09:07:56Z</time></trkpt><trkpt lat="41.88940256924487" lon="1.6248520126450288"><ele>682.0</ele><time>2026-03-30T09:07:57Z</time></trkpt><trkpt lat="41.88942057495246" lon="1.6246861254050184"><ele>682.0</ele><time>2026-03-30T09:07:58Z</time></trkpt><trkpt lat="41.88940748204799" lon="1.6245148563922547"><ele>682.0</ele><time>2026-03-30T09:07:59Z</time></trkpt><trkpt lat="41.88935653785853" lon="1.6243301578110374"><ele>680.6666666666667</ele><time>2026-03-30T09:08:00Z</time></trkpt><trkpt lat="41.889276232816464" lon="1.624157010685042"><ele>679.3333333333334</ele><time>2026-03-30T09:08:01Z</time></trkpt><trkpt lat="41.88919504824909" lon="1.623962068774867"><ele>678.0</ele><time>2026-03-30T09:08:02Z</time></trkpt><trkpt lat="41.889112118011" lon="1.6237947976926466"><ele>681.3333333333334</ele><time>2026-03-30T09:08:03Z</time></trkpt><trkpt lat="41.88903030652813" lon="1.6236333169431303"><ele>684.6666666666667</ele><time>2026-03-30T09:08:04Z</time></trkpt><trkpt lat="41.888927428940974" lon="1.6234635290328865"><ele>688.0</ele><time>2026-03-30T09:08:05Z</time></trkpt><trkpt lat="41.88884159518765" lon="1.6232720947067387"><ele>688.0</ele><time>2026-03-30T09:08:06Z</time></trkpt><trkpt lat="41.888755649811294" lon="1.623061839038075"><ele>688.0</ele><time>2026-03-30T09:08:07Z</time></trkpt><trkpt lat="41.88867987272694" lon="1.6228405791222125"><ele>688.0</ele><time>2026-03-30T09:08:08Z</time></trkpt><trkpt lat="41.88861408881958" lon="1.6226178808983143"><ele>688.0</ele><time>2026-03-30T09:08:09Z</time></trkpt><trkpt lat="41.888540825542016" lon="1.6223895386662"><ele>688.0</ele><time>2026-03-30T09:08:10Z</time></trkpt><trkpt lat="41.88846431552847" lon="1.6221684436939494"><ele>688.0</ele><time>2026-03-30T09:08:11Z</time></trkpt><trkpt lat="41.88839966906837" lon="1.6219668636416873"><ele>688.0</ele><time>2026-03-30T09:08:12Z</time></trkpt><trkpt lat="41.88834060688173" lon="1.6217787526828555"><ele>688.0</ele><time>2026-03-30T09:08:13Z</time></trkpt><trkpt lat="41.88828675511619" lon="1.621587137062894"><ele>688.0</ele><time>2026-03-30T09:08:14Z</time></trkpt><trkpt lat="41.88827572209247" lon="1.6213664065166449"><ele>687.6666666666667</ele><time>2026-03-30T09:08:15Z</time></trkpt><trkpt lat="41.88824619011454" lon="1.621140481807451"><ele>687.3333333333334</ele><time>2026-03-30T09:08:16Z</time></trkpt><trkpt lat="41.88823801925203" lon="1.6209109242077502"><ele>687.0</ele><time>2026-03-30T09:08:17Z</time></trkpt><trkpt lat="41.88821433573347" lon="1.6206805512729447"><ele>687.0</ele><time>2026-03-30T09:08:18Z</time></trkpt><trkpt lat="41.88818298897501" lon="1.6204403908995775"><ele>687.0</ele><time>2026-03-30T09:08:19Z</time></trkpt><trkpt lat="41.88813973737993" lon="1.6201984200496415"><ele>687.0</ele><time>2026-03-30T09:08:20Z</time></trkpt><trkpt lat="41.88807967985255" lon="1.6199609079996085"><ele>686.6666666666666</ele><time>2026-03-30T09:08:21Z</time></trkpt><trkpt lat="41.88801035179064" lon="1.619725778050755"><ele>686.3333333333333</ele><time>2026-03-30T09:08:22Z</time></trkpt><trkpt lat="41.88794173521556" lon="1.619487080308951"><ele>686.0</ele><time>2026-03-30T09:08:23Z</time></trkpt><trkpt lat="41.88787119140451" lon="1.6192469040676458"><ele>683.3333333333333</ele><time>2026-03-30T09:08:24Z</time></trkpt><trkpt lat="41.887798884678624" lon="1.6190085909762717"><ele>680.6666666666666</ele><time>2026-03-30T09:08:25Z</time></trkpt><trkpt lat="41.88772834583627" lon="1.6187661500887929"><ele>678.0</ele><time>2026-03-30T09:08:26Z</time></trkpt><trkpt lat="41.88765785767651" lon="1.6185236858209426"><ele>675.0</ele><time>2026-03-30T09:08:27Z</time></trkpt><trkpt lat="41.887589940957454" lon="1.6182879335299623"><ele>672.0</ele><time>2026-03-30T09:08:28Z</time></trkpt><trkpt lat="41.8875220249108" lon="1.6180623618869001"><ele>669.0</ele><time>2026-03-30T09:08:29Z</time></trkpt><trkpt lat="41.88745863392339" lon="1.6178445132444452"><ele>667.6666666666666</ele><time>2026-03-30T09:08:30Z</time></trkpt><trkpt lat="41.88739490772319" lon="1.6176239779813393"><ele>666.3333333333333</ele><time>2026-03-30T09:08:31Z</time></trkpt><trkpt lat="41.887331962027304" lon="1.6173968205129008"><ele>665.0</ele><time>2026-03-30T09:08:32Z</time></trkpt><trkpt lat="41.88726946456802" lon="1.6171669789772662"><ele>663.3333333333333</ele><time>2026-03-30T09:08:33Z</time></trkpt><trkpt lat="41.887203307207095" lon="1.6169394243464312"><ele>661.6666666666666</ele><time>2026-03-30T09:08:34Z</time></trkpt><trkpt lat="41.887151385798" lon="1.6167175475993956"><ele>660.0</ele><time>2026-03-30T09:08:35Z</time></trkpt><trkpt lat="41.88714577742914" lon="1.6164838469327194"><ele>660.0</ele><time>2026-03-30T09:08:36Z</time></trkpt><trkpt lat="41.88716820324199" lon="1.6162606523532819"><ele>660.0</ele><time>2026-03-30T09:08:37Z</time></trkpt><trkpt lat="41.88719585353936" lon="1.6160439950684153"><ele>660.0</ele><time>2026-03-30T09:08:38Z</time></trkpt><trkpt lat="41.88724956477543" lon="1.6158411214882353"><ele>659.0</ele><time>2026-03-30T09:08:39Z</time></trkpt><trkpt lat="41.887284523453886" lon="1.6156224409678892"><ele>658.0</ele><time>2026-03-30T09:08:40Z</time></trkpt><trkpt lat="41.88732416042399" lon="1.6153997818817747"><ele>657.0</ele><time>2026-03-30T09:08:41Z</time></trkpt><trkpt lat="41.88736928384601" lon="1.6151757853630924"><ele>655.3333333333334</ele><time>2026-03-30T09:08:42Z</time></trkpt><trkpt lat="41.887419027842796" lon="1.6149441363275774"><ele>653.6666666666667</ele><time>2026-03-30T09:08:43Z</time></trkpt><trkpt lat="41.88750467706833" lon="1.6147238037222165"><ele>652.0</ele><time>2026-03-30T09:08:44Z</time></trkpt><trkpt lat="41.88762085357551" lon="1.6145313172068145"><ele>650.3333333333334</ele><time>2026-03-30T09:08:45Z</time></trkpt><trkpt lat="41.887743674845176" lon="1.6143547908199012"><ele>648.6666666666666</ele><time>2026-03-30T09:08:46Z</time></trkpt><trkpt lat="41.88786358365926" lon="1.6141681066120432"><ele>647.0</ele><time>2026-03-30T09:08:47Z</time></trkpt><trkpt lat="41.88797768951269" lon="1.61397624147868"><ele>647.0</ele><time>2026-03-30T09:08:48Z</time></trkpt><trkpt lat="41.88809370958578" lon="1.6137878003490045"><ele>647.0</ele><time>2026-03-30T09:08:49Z</time></trkpt><trkpt lat="41.88820897474815" lon="1.6136010776881091"><ele>647.0</ele><time>2026-03-30T09:08:50Z</time></trkpt><trkpt lat="41.888317752285396" lon="1.6134311877855863"><ele>647.75</ele><time>2026-03-30T09:08:51Z</time></trkpt><trkpt lat="41.88841926395702" lon="1.6132758459816532"><ele>648.5</ele><time>2026-03-30T09:08:52Z</time></trkpt><trkpt lat="41.88850436635891" lon="1.6131361599775953"><ele>649.25</ele><time>2026-03-30T09:08:53Z</time></trkpt><trkpt lat="41.88856401896081" lon="1.6129797631487481"><ele>650.0</ele><time>2026-03-30T09:08:54Z</time></trkpt><trkpt lat="41.88858937355656" lon="1.6128182288553097"><ele>647.75</ele><time>2026-03-30T09:08:55Z</time></trkpt><trkpt lat="41.88860099718102" lon="1.6126522414572395"><ele>645.5</ele><time>2026-03-30T09:08:56Z</time></trkpt><trkpt lat="41.888587973545164" lon="1.612481687982503"><ele>643.25</ele><time>2026-03-30T09:08:57Z</time></trkpt><trkpt lat="41.88856032462413" lon="1.6123037191379916"><ele>641.0</ele><time>2026-03-30T09:08:58Z</time></trkpt><trkpt lat="41.88854578545676" lon="1.6121200095412378"><ele>640.3333333333333</ele><time>2026-03-30T09:08:59Z</time></trkpt><trkpt lat="41.88851640719875" lon="1.6119330665427931"><ele>639.6666666666666</ele><time>2026-03-30T09:09:00Z</time></trkpt><trkpt lat="41.88846827314878" lon="1.6117422396331968"><ele>639.0</ele><time>2026-03-30T09:09:01Z</time></trkpt><trkpt lat="41.88843451696783" lon="1.6115332967653964"><ele>638.6666666666666</ele><time>2026-03-30T09:09:02Z</time></trkpt><trkpt lat="41.88841144912544" lon="1.6112991742940468"><ele>638.3333333333333</ele><time>2026-03-30T09:09:03Z</time></trkpt><trkpt lat="41.88837072580864" lon="1.6110456473597488"><ele>638.0</ele><time>2026-03-30T09:09:04Z</time></trkpt><trkpt lat="41.888330777670106" lon="1.6107969461881932"><ele>638.0</ele><time>2026-03-30T09:09:05Z</time></trkpt><trkpt lat="41.88829682535861" lon="1.6105855731293925"><ele>638.0</ele><time>2026-03-30T09:09:06Z</time></trkpt><trkpt lat="41.888263592762826" lon="1.6103797077118271"><ele>638.0</ele><time>2026-03-30T09:09:07Z</time></trkpt><trkpt lat="41.88822287957622" lon="1.6101898194796482"><ele>638.0</ele><time>2026-03-30T09:09:08Z</time></trkpt><trkpt lat="41.88819153613137" lon="1.6099881384400665"><ele>638.0</ele><time>2026-03-30T09:09:09Z</time></trkpt><trkpt lat="41.888154935291844" lon="1.6097758977727286"><ele>638.0</ele><time>2026-03-30T09:09:10Z</time></trkpt><trkpt lat="41.8881188524631" lon="1.6095699517722108"><ele>638.0</ele><time>2026-03-30T09:09:11Z</time></trkpt><trkpt lat="41.88808351355714" lon="1.6093700938108189"><ele>638.0</ele><time>2026-03-30T09:09:12Z</time></trkpt><trkpt lat="41.88804553577026" lon="1.6091506696174658"><ele>638.0</ele><time>2026-03-30T09:09:13Z</time></trkpt><trkpt lat="41.88800886231948" lon="1.6089186052301023"><ele>638.0</ele><time>2026-03-30T09:09:14Z</time></trkpt><trkpt lat="41.887988948867054" lon="1.6087108212188894"><ele>638.0</ele><time>2026-03-30T09:09:15Z</time></trkpt><trkpt lat="41.88795575484768" lon="1.608511609992979"><ele>638.0</ele><time>2026-03-30T09:09:16Z</time></trkpt><trkpt lat="41.88792411295718" lon="1.6083217135894603"><ele>638.0</ele><time>2026-03-30T09:09:17Z</time></trkpt><trkpt lat="41.887892895334986" lon="1.6081343636150036"><ele>638.0</ele><time>2026-03-30T09:09:18Z</time></trkpt><trkpt lat="41.88786039837467" lon="1.6079393356652267"><ele>638.0</ele><time>2026-03-30T09:09:19Z</time></trkpt><trkpt lat="41.88782556387182" lon="1.6077268186104858"><ele>638.3333333333333</ele><time>2026-03-30T09:09:20Z</time></trkpt><trkpt lat="41.88778912670663" lon="1.6075002157883824"><ele>638.6666666666666</ele><time>2026-03-30T09:09:21Z</time></trkpt><trkpt lat="41.887751300207015" lon="1.6072649728640467"><ele>639.0</ele><time>2026-03-30T09:09:22Z</time></trkpt><trkpt lat="41.887711115398105" lon="1.6070150633155136"><ele>640.0</ele><time>2026-03-30T09:09:23Z</time></trkpt><trkpt lat="41.88766584225325" lon="1.6067335095201003"><ele>641.0</ele><time>2026-03-30T09:09:24Z</time></trkpt><trkpt lat="41.887613379847046" lon="1.6064072457371144"><ele>640.3333333333333</ele><time>2026-03-30T09:09:25Z</time></trkpt><trkpt lat="41.88756328159277" lon="1.6060960684840309"><ele>639.6666666666666</ele><time>2026-03-30T09:09:26Z</time></trkpt><trkpt lat="41.887518115726465" lon="1.6058182802050212"><ele>639.0</ele><time>2026-03-30T09:09:27Z</time></trkpt><trkpt lat="41.88746850648948" lon="1.6055131631575392"><ele>638.5</ele><time>2026-03-30T09:09:28Z</time></trkpt><trkpt lat="41.887415729613686" lon="1.6051885638948762"><ele>638.0</ele><time>2026-03-30T09:09:29Z</time></trkpt><trkpt lat="41.887361036886865" lon="1.6048521818452481"><ele>638.0</ele><time>2026-03-30T09:09:30Z</time></trkpt><trkpt lat="41.88730589708023" lon="1.6045130500183833"><ele>638.0</ele><time>2026-03-30T09:09:31Z</time></trkpt><trkpt lat="41.88725062131893" lon="1.6041749277086075"><ele>639.0</ele><time>2026-03-30T09:09:32Z</time></trkpt><trkpt lat="41.887195465919746" lon="1.603846181874684"><ele>640.0</ele><time>2026-03-30T09:09:33Z</time></trkpt><trkpt lat="41.88714246803758" lon="1.6035332475796482"><ele>641.0</ele><time>2026-03-30T09:09:34Z</time></trkpt><trkpt lat="41.887095748055806" lon="1.6032573819785303"><ele>642.0</ele><time>2026-03-30T09:09:35Z</time></trkpt><trkpt lat="41.88703610614865" lon="1.6029991264061096"><ele>643.0</ele><time>2026-03-30T09:09:36Z</time></trkpt><trkpt lat="41.88699404420222" lon="1.6027374515447086"><ele>644.3333333333334</ele><time>2026-03-30T09:09:37Z</time></trkpt><trkpt lat="41.88694962259217" lon="1.6024732044384642"><ele>645.6666666666666</ele><time>2026-03-30T09:09:38Z</time></trkpt><trkpt lat="41.88690580394223" lon="1.6022037762623556"><ele>647.0</ele><time>2026-03-30T09:09:39Z</time></trkpt><trkpt lat="41.88686184721992" lon="1.6019406922011812"><ele>647.6666666666666</ele><time>2026-03-30T09:09:40Z</time></trkpt><trkpt lat="41.88683639500168" lon="1.6016787535924277"><ele>648.3333333333334</ele><time>2026-03-30T09:09:41Z</time></trkpt><trkpt lat="41.88679544849249" lon="1.6014233742669355"><ele>649.0</ele><time>2026-03-30T09:09:42Z</time></trkpt><trkpt lat="41.886754415912904" lon="1.6011665778371784"><ele>648.6666666666667</ele><time>2026-03-30T09:09:43Z</time></trkpt><trkpt lat="41.88670151033869" lon="1.6009141844654413"><ele>648.3333333333334</ele><time>2026-03-30T09:09:44Z</time></trkpt><trkpt lat="41.88666901244781" lon="1.6006554523798455"><ele>648.0</ele><time>2026-03-30T09:09:45Z</time></trkpt><trkpt lat="41.88664302775504" lon="1.6003877610842214"><ele>649.0</ele><time>2026-03-30T09:09:46Z</time></trkpt><trkpt lat="41.88666801784931" lon="1.6001065602120215"><ele>650.0</ele><time>2026-03-30T09:09:47Z</time></trkpt><trkpt lat="41.886684565812466" lon="1.599830191911293"><ele>651.0</ele><time>2026-03-30T09:09:48Z</time></trkpt><trkpt lat="41.88668908852586" lon="1.599561810034533"><ele>653.6666666666666</ele><time>2026-03-30T09:09:49Z</time></trkpt><trkpt lat="41.8867060353718" lon="1.599293110718387"><ele>656.3333333333333</ele><time>2026-03-30T09:09:50Z</time></trkpt><trkpt lat="41.886726623899534" lon="1.5990224252574434"><ele>659.0</ele><time>2026-03-30T09:09:51Z</time></trkpt><trkpt lat="41.8867502593292" lon="1.598760361580449"><ele>666.3333333333333</ele><time>2026-03-30T09:09:52Z</time></trkpt><trkpt lat="41.88676433051966" lon="1.5985056880248725"><ele>673.6666666666666</ele><time>2026-03-30T09:09:53Z</time></trkpt><trkpt lat="41.886773856842446" lon="1.5982660196265983"><ele>681.0</ele><time>2026-03-30T09:09:54Z</time></trkpt><trkpt lat="41.88678773190211" lon="1.5980582023973922"><ele>681.0</ele><time>2026-03-30T09:09:55Z</time></trkpt><trkpt lat="41.88681997074953" lon="1.5978780578414205"><ele>681.0</ele><time>2026-03-30T09:09:56Z</time></trkpt><trkpt lat="41.886887550996015" lon="1.597708199904363"><ele>681.0</ele><time>2026-03-30T09:09:57Z</time></trkpt><trkpt lat="41.886997141392065" lon="1.5975570995723043"><ele>681.0</ele><time>2026-03-30T09:09:58Z</time></trkpt><trkpt lat="41.887142707901866" lon="1.5974322745914313"><ele>681.0</ele><time>2026-03-30T09:09:59Z</time></trkpt><trkpt lat="41.88731185019147" lon="1.597350131210462"><ele>681.0</ele><time>2026-03-30T09:10:00Z</time></trkpt><trkpt lat="41.887485885778894" lon="1.5973184743756679"><ele>681.0</ele><time>2026-03-30T09:10:01Z</time></trkpt><trkpt lat="41.887655701930804" lon="1.597324435342687"><ele>681.0</ele><time>2026-03-30T09:10:02Z</time></trkpt><trkpt lat="41.88782172540706" lon="1.597356233608262"><ele>681.0</ele><time>2026-03-30T09:10:03Z</time></trkpt><trkpt lat="41.8879823580292" lon="1.597413127756934"><ele>681.0</ele><time>2026-03-30T09:10:04Z</time></trkpt><trkpt lat="41.88812133639533" lon="1.5975349827499208"><ele>681.0</ele><time>2026-03-30T09:10:05Z</time></trkpt><trkpt lat="41.8882723915478" lon="1.5976249964908449"><ele>681.0</ele><time>2026-03-30T09:10:06Z</time></trkpt><trkpt lat="41.88842586746685" lon="1.5977257762688242"><ele>681.0</ele><time>2026-03-30T09:10:07Z</time></trkpt><trkpt lat="41.88861130986581" lon="1.5977875871101825"><ele>681.6666666666666</ele><time>2026-03-30T09:10:08Z</time></trkpt><trkpt lat="41.88882117092511" lon="1.5977971519815097"><ele>682.3333333333333</ele><time>2026-03-30T09:10:09Z</time></trkpt><trkpt lat="41.88904660360251" lon="1.5977750340461259"><ele>683.0</ele><time>2026-03-30T09:10:10Z</time></trkpt><trkpt lat="41.889255475530675" lon="1.5977446766707557"><ele>683.3333333333333</ele><time>2026-03-30T09:10:11Z</time></trkpt><trkpt lat="41.889437212731806" lon="1.5977299131527058"><ele>683.6666666666666</ele><time>2026-03-30T09:10:12Z</time></trkpt><trkpt lat="41.889601584380095" lon="1.597722679998444"><ele>684.0</ele><time>2026-03-30T09:10:13Z</time></trkpt><trkpt lat="41.88975915243901" lon="1.5977086567253307"><ele>684.0</ele><time>2026-03-30T09:10:14Z</time></trkpt><trkpt lat="41.88990776276932" lon="1.5976952709022085"><ele>684.0</ele><time>2026-03-30T09:10:15Z</time></trkpt><trkpt lat="41.8900583960083" lon="1.5976488010350252"><ele>684.0</ele><time>2026-03-30T09:10:16Z</time></trkpt><trkpt lat="41.89018339799964" lon="1.597534833099299"><ele>685.0</ele><time>2026-03-30T09:10:17Z</time></trkpt><trkpt lat="41.89026671278157" lon="1.5973857758215473"><ele>686.0</ele><time>2026-03-30T09:10:18Z</time></trkpt><trkpt lat="41.89031323289512" lon="1.59721355141839"><ele>687.0</ele><time>2026-03-30T09:10:19Z</time></trkpt><trkpt lat="41.890313446447294" lon="1.5970229938307434"><ele>688.0</ele><time>2026-03-30T09:10:20Z</time></trkpt><trkpt lat="41.89028229894428" lon="1.5968243128997162"><ele>689.3333333333334</ele><time>2026-03-30T09:10:21Z</time></trkpt><trkpt lat="41.89019357311666" lon="1.5966335483403653"><ele>690.6666666666666</ele><time>2026-03-30T09:10:22Z</time></trkpt><trkpt lat="41.89008711047235" lon="1.5964319563765952"><ele>692.0</ele><time>2026-03-30T09:10:23Z</time></trkpt><trkpt lat="41.88997345750548" lon="1.5962365396297002"><ele>695.3333333333333</ele><time>2026-03-30T09:10:24Z</time></trkpt><trkpt lat="41.88986366645772" lon="1.5960468598801323"><ele>698.6666666666666</ele><time>2026-03-30T09:10:25Z</time></trkpt><trkpt lat="41.889755915733865" lon="1.595860723334934"><ele>702.0</ele><time>2026-03-30T09:10:26Z</time></trkpt><trkpt lat="41.88963054111195" lon="1.5957028308346353"><ele>702.0</ele><time>2026-03-30T09:10:27Z</time></trkpt><trkpt lat="41.88949990191546" lon="1.595555190349668"><ele>702.0</ele><time>2026-03-30T09:10:28Z</time></trkpt><trkpt lat="41.889339060620266" lon="1.5954360411900719"><ele>702.0</ele><time>2026-03-30T09:10:29Z</time></trkpt><trkpt lat="41.88918038176352" lon="1.5952784466046266"><ele>702.3333333333334</ele><time>2026-03-30T09:10:30Z</time></trkpt><trkpt lat="41.88902034293862" lon="1.5951383815614373"><ele>702.6666666666667</ele><time>2026-03-30T09:10:31Z</time></trkpt><trkpt lat="41.88888841223951" lon="1.5949854460498807"><ele>703.0</ele><time>2026-03-30T09:10:32Z</time></trkpt><trkpt lat="41.88879852616406" lon="1.5947982794103261"><ele>703.0</ele><time>2026-03-30T09:10:33Z</time></trkpt><trkpt lat="41.888703701208726" lon="1.5945906952274538"><ele>703.0</ele><time>2026-03-30T09:10:34Z</time></trkpt><trkpt lat="41.88858868287247" lon="1.5943894672939234"><ele>703.0</ele><time>2026-03-30T09:10:35Z</time></trkpt><trkpt lat="41.88850392640621" lon="1.5941666040687124"><ele>702.6666666666667</ele><time>2026-03-30T09:10:36Z</time></trkpt><trkpt lat="41.88841062517148" lon="1.5939642336901532"><ele>702.3333333333334</ele><time>2026-03-30T09:10:37Z</time></trkpt><trkpt lat="41.88831816750007" lon="1.5937676309635647"><ele>702.0</ele><time>2026-03-30T09:10:38Z</time></trkpt><trkpt lat="41.88824807571336" lon="1.593581568273468"><ele>702.75</ele><time>2026-03-30T09:10:39Z</time></trkpt><trkpt lat="41.88822804242505" lon="1.5933907651665358"><ele>703.5</ele><time>2026-03-30T09:10:40Z</time></trkpt><trkpt lat="41.88826435950101" lon="1.5932098490623905"><ele>704.25</ele><time>2026-03-30T09:10:41Z</time></trkpt><trkpt lat="41.88833659592788" lon="1.5930453297260148"><ele>705.0</ele><time>2026-03-30T09:10:42Z</time></trkpt><trkpt lat="41.88842333528465" lon="1.5928701787039188"><ele>705.3333333333334</ele><time>2026-03-30T09:10:43Z</time></trkpt><trkpt lat="41.88854730377112" lon="1.592731326523105"><ele>705.6666666666667</ele><time>2026-03-30T09:10:44Z</time></trkpt><trkpt lat="41.888667091744" lon="1.5925837961581049"><ele>706.0</ele><time>2026-03-30T09:10:45Z</time></trkpt><trkpt lat="41.88879040522532" lon="1.5924476397485223"><ele>706.0</ele><time>2026-03-30T09:10:46Z</time></trkpt><trkpt lat="41.88892446418558" lon="1.592322934861131"><ele>706.0</ele><time>2026-03-30T09:10:47Z</time></trkpt><trkpt lat="41.88906200427137" lon="1.5921980671656655"><ele>706.0</ele><time>2026-03-30T09:10:48Z</time></trkpt><trkpt lat="41.88919017270207" lon="1.5920360301449348"><ele>705.6666666666667</ele><time>2026-03-30T09:10:49Z</time></trkpt><trkpt lat="41.88927045825727" lon="1.5918376030701558"><ele>705.3333333333334</ele><time>2026-03-30T09:10:50Z</time></trkpt><trkpt lat="41.88931768173324" lon="1.5916410040423445"><ele>705.0</ele><time>2026-03-30T09:10:51Z</time></trkpt><trkpt lat="41.88932578762344" lon="1.5914454458644032"><ele>705.0</ele><time>2026-03-30T09:10:52Z</time></trkpt><trkpt lat="41.88929523491166" lon="1.5912413411121926"><ele>705.0</ele><time>2026-03-30T09:10:53Z</time></trkpt><trkpt lat="41.88922768007865" lon="1.5910305876773516"><ele>705.0</ele><time>2026-03-30T09:10:54Z</time></trkpt><trkpt lat="41.88912734846336" lon="1.590826721306127"><ele>705.6666666666666</ele><time>2026-03-30T09:10:55Z</time></trkpt><trkpt lat="41.88903203714317" lon="1.590609305478301"><ele>706.3333333333333</ele><time>2026-03-30T09:10:56Z</time></trkpt><trkpt lat="41.88893105350181" lon="1.5903877612213844"><ele>707.0</ele><time>2026-03-30T09:10:57Z</time></trkpt><trkpt lat="41.88883137044402" lon="1.590169070540896"><ele>708.3333333333333</ele><time>2026-03-30T09:10:58Z</time></trkpt><trkpt lat="41.88872436797506" lon="1.589974368840015"><ele>709.6666666666666</ele><time>2026-03-30T09:10:59Z</time></trkpt><trkpt lat="41.88864235985221" lon="1.5897961480127272"><ele>711.0</ele><time>2026-03-30T09:11:00Z</time></trkpt><trkpt lat="41.888590202626034" lon="1.5896053151008467"><ele>713.3333333333334</ele><time>2026-03-30T09:11:01Z</time></trkpt><trkpt lat="41.88856252824345" lon="1.5894037018316092"><ele>715.6666666666667</ele><time>2026-03-30T09:11:02Z</time></trkpt><trkpt lat="41.88857561950773" lon="1.589185329251671"><ele>718.0</ele><time>2026-03-30T09:11:03Z</time></trkpt><trkpt lat="41.88861158329851" lon="1.5889521850944688"><ele>718.0</ele><time>2026-03-30T09:11:04Z</time></trkpt><trkpt lat="41.88864197656453" lon="1.5887100188577612"><ele>718.0</ele><time>2026-03-30T09:11:05Z</time></trkpt><trkpt lat="41.88866960967297" lon="1.588478139169055"><ele>718.0</ele><time>2026-03-30T09:11:06Z</time></trkpt><trkpt lat="41.88869647780325" lon="1.5882453482730048"><ele>717.6666666666667</ele><time>2026-03-30T09:11:07Z</time></trkpt><trkpt lat="41.88872990329313" lon="1.5880036852745874"><ele>717.3333333333334</ele><time>2026-03-30T09:11:08Z</time></trkpt><trkpt lat="41.8887676730195" lon="1.5877692507048635"><ele>717.0</ele><time>2026-03-30T09:11:09Z</time></trkpt><trkpt lat="41.88885053991247" lon="1.5875587335562267"><ele>715.3333333333334</ele><time>2026-03-30T09:11:10Z</time></trkpt><trkpt lat="41.88895690228864" lon="1.5874124827701608"><ele>713.6666666666667</ele><time>2026-03-30T09:11:11Z</time></trkpt><trkpt lat="41.88907134195429" lon="1.5872589814718883"><ele>712.0</ele><time>2026-03-30T09:11:12Z</time></trkpt><trkpt lat="41.88919286010392" lon="1.5871050921101353"><ele>716.6666666666667</ele><time>2026-03-30T09:11:13Z</time></trkpt><trkpt lat="41.88927328775898" lon="1.5869173405616783"><ele>721.3333333333334</ele><time>2026-03-30T09:11:14Z</time></trkpt><trkpt lat="41.889307399886256" lon="1.586698664006131"><ele>726.0</ele><time>2026-03-30T09:11:15Z</time></trkpt><trkpt lat="41.8893067086536" lon="1.5864595347363242"><ele>726.0</ele><time>2026-03-30T09:11:16Z</time></trkpt><trkpt lat="41.88929805063614" lon="1.586207882887146"><ele>726.0</ele><time>2026-03-30T09:11:17Z</time></trkpt><trkpt lat="41.88929680388088" lon="1.5859610605950754"><ele>726.0</ele><time>2026-03-30T09:11:18Z</time></trkpt><trkpt lat="41.889300142622155" lon="1.5857072097736642"><ele>726.0</ele><time>2026-03-30T09:11:19Z</time></trkpt><trkpt lat="41.88929999790438" lon="1.5854499816015422"><ele>726.0</ele><time>2026-03-30T09:11:20Z</time></trkpt><trkpt lat="41.8892728380786" lon="1.5852031330040657"><ele>726.0</ele><time>2026-03-30T09:11:21Z</time></trkpt><trkpt lat="41.88921946678247" lon="1.5849669854770188"><ele>722.3333333333334</ele><time>2026-03-30T09:11:22Z</time></trkpt><trkpt lat="41.889164383182184" lon="1.584735201705083"><ele>718.6666666666667</ele><time>2026-03-30T09:11:23Z</time></trkpt><trkpt lat="41.88911452410514" lon="1.5844909871344768"><ele>715.0</ele><time>2026-03-30T09:11:24Z</time></trkpt><trkpt lat="41.88906543190198" lon="1.5842457818404252"><ele>715.0</ele><time>2026-03-30T09:11:25Z</time></trkpt><trkpt lat="41.88901689854939" lon="1.5839929892984637"><ele>715.0</ele><time>2026-03-30T09:11:26Z</time></trkpt><trkpt lat="41.8889711161731" lon="1.5837396445776204"><ele>715.0</ele><time>2026-03-30T09:11:27Z</time></trkpt><trkpt lat="41.88896240735718" lon="1.5834901960361987"><ele>715.0</ele><time>2026-03-30T09:11:28Z</time></trkpt><trkpt lat="41.888965863109654" lon="1.5832522599586945"><ele>715.0</ele><time>2026-03-30T09:11:29Z</time></trkpt><trkpt lat="41.88900614661157" lon="1.5830152067466643"><ele>715.0</ele><time>2026-03-30T09:11:30Z</time></trkpt><trkpt lat="41.88906244928045" lon="1.5827712596655845"><ele>714.6666666666667</ele><time>2026-03-30T09:11:31Z</time></trkpt><trkpt lat="41.889138531696695" lon="1.5825423886723498"><ele>714.3333333333334</ele><time>2026-03-30T09:11:32Z</time></trkpt><trkpt lat="41.88920785192941" lon="1.5823166815515555"><ele>714.0</ele><time>2026-03-30T09:11:33Z</time></trkpt><trkpt lat="41.8892668335278" lon="1.5820950316123208"><ele>715.6666666666666</ele><time>2026-03-30T09:11:34Z</time></trkpt><trkpt lat="41.88930658392481" lon="1.5818807804033856"><ele>717.3333333333333</ele><time>2026-03-30T09:11:35Z</time></trkpt><trkpt lat="41.88931325860039" lon="1.581656240856192"><ele>719.0</ele><time>2026-03-30T09:11:36Z</time></trkpt><trkpt lat="41.889272802708035" lon="1.5814168712376393"><ele>719.3333333333333</ele><time>2026-03-30T09:11:37Z</time></trkpt><trkpt lat="41.88919040090586" lon="1.5811847198707758"><ele>719.6666666666666</ele><time>2026-03-30T09:11:38Z</time></trkpt><trkpt lat="41.88907535157801" lon="1.580988897847676"><ele>720.0</ele><time>2026-03-30T09:11:39Z</time></trkpt><trkpt lat="41.88895803746527" lon="1.5808096244831074"><ele>720.0</ele><time>2026-03-30T09:11:40Z</time></trkpt><trkpt lat="41.88887207723942" lon="1.5806105168125315"><ele>720.0</ele><time>2026-03-30T09:11:41Z</time></trkpt><trkpt lat="41.888789118956204" lon="1.5804343292769016"><ele>720.0</ele><time>2026-03-30T09:11:42Z</time></trkpt><trkpt lat="41.88875644306282" lon="1.5802437840371253"><ele>720.3333333333334</ele><time>2026-03-30T09:11:43Z</time></trkpt><trkpt lat="41.88872849920133" lon="1.5800593694008291"><ele>720.6666666666667</ele><time>2026-03-30T09:11:44Z</time></trkpt><trkpt lat="41.8887804354666" lon="1.579861309675121"><ele>721.0</ele><time>2026-03-30T09:11:45Z</time></trkpt><trkpt lat="41.88882576523359" lon="1.5796502441657756"><ele>720.3333333333334</ele><time>2026-03-30T09:11:46Z</time></trkpt><trkpt lat="41.88890085130537" lon="1.5794402649952877"><ele>719.6666666666666</ele><time>2026-03-30T09:11:47Z</time></trkpt><trkpt lat="41.88896599140839" lon="1.5792079812995248"><ele>719.0</ele><time>2026-03-30T09:11:48Z</time></trkpt><trkpt lat="41.88903227130119" lon="1.5789594863640606"><ele>719.0</ele><time>2026-03-30T09:11:49Z</time></trkpt><trkpt lat="41.889096498651895" lon="1.5787119885028225"><ele>719.0</ele><time>2026-03-30T09:11:50Z</time></trkpt><trkpt lat="41.88916626040167" lon="1.5784599659419147"><ele>719.0</ele><time>2026-03-30T09:11:51Z</time></trkpt><trkpt lat="41.88923916471952" lon="1.5782044619413245"><ele>720.6666666666666</ele><time>2026-03-30T09:11:52Z</time></trkpt><trkpt lat="41.8893021217207" lon="1.5779745748565743"><ele>722.3333333333334</ele><time>2026-03-30T09:11:53Z</time></trkpt><trkpt lat="41.8893607795122" lon="1.577739000614425"><ele>724.0</ele><time>2026-03-30T09:11:54Z</time></trkpt><trkpt lat="41.88942354468042" lon="1.5775187298136455"><ele>724.0</ele><time>2026-03-30T09:11:55Z</time></trkpt><trkpt lat="41.88949764802088" lon="1.5773199275982293"><ele>724.0</ele><time>2026-03-30T09:11:56Z</time></trkpt><trkpt lat="41.88961701981374" lon="1.5771750430944345"><ele>724.0</ele><time>2026-03-30T09:11:57Z</time></trkpt><trkpt lat="41.88973423295151" lon="1.5770940259098996"><ele>724.0</ele><time>2026-03-30T09:11:58Z</time></trkpt><trkpt lat="41.88987667410333" lon="1.577034820813844"><ele>724.0</ele><time>2026-03-30T09:11:59Z</time></trkpt><trkpt lat="41.890041503925964" lon="1.5769947844623293"><ele>724.0</ele><time>2026-03-30T09:12:00Z</time></trkpt><trkpt lat="41.89020870798106" lon="1.5770045920848128"><ele>724.6666666666667</ele><time>2026-03-30T09:12:01Z</time></trkpt><trkpt lat="41.89038168230728" lon="1.577016131039227"><ele>725.3333333333334</ele><time>2026-03-30T09:12:02Z</time></trkpt><trkpt lat="41.89055605587615" lon="1.5770580740064608"><ele>726.0</ele><time>2026-03-30T09:12:03Z</time></trkpt><trkpt lat="41.89073649627309" lon="1.57706439556956"><ele>725.6666666666666</ele><time>2026-03-30T09:12:04Z</time></trkpt><trkpt lat="41.89090804784497" lon="1.5770142471415631"><ele>725.3333333333333</ele><time>2026-03-30T09:12:05Z</time></trkpt><trkpt lat="41.89106522936781" lon="1.5769212735845286"><ele>725.0</ele><time>2026-03-30T09:12:06Z</time></trkpt><trkpt lat="41.89121590741661" lon="1.5768041611325883"><ele>725.0</ele><time>2026-03-30T09:12:07Z</time></trkpt><trkpt lat="41.8913586460745" lon="1.5766808657329334"><ele>725.0</ele><time>2026-03-30T09:12:08Z</time></trkpt><trkpt lat="41.89147201048031" lon="1.5765472256655266"><ele>725.0</ele><time>2026-03-30T09:12:09Z</time></trkpt><trkpt lat="41.89154732745742" lon="1.5763920367749067"><ele>725.0</ele><time>2026-03-30T09:12:10Z</time></trkpt><trkpt lat="41.891591758749186" lon="1.5762160000670193"><ele>725.0</ele><time>2026-03-30T09:12:11Z</time></trkpt><trkpt lat="41.89160590981859" lon="1.576010503908021"><ele>725.0</ele><time>2026-03-30T09:12:12Z</time></trkpt><trkpt lat="41.89159666874022" lon="1.5757688975693964"><ele>724.6666666666666</ele><time>2026-03-30T09:12:13Z</time></trkpt><trkpt lat="41.89158277897454" lon="1.5755145291406583"><ele>724.3333333333334</ele><time>2026-03-30T09:12:14Z</time></trkpt><trkpt lat="41.891577298564414" lon="1.5752538294863758"><ele>724.0</ele><time>2026-03-30T09:12:15Z</time></trkpt><trkpt lat="41.89157882611193" lon="1.5750049252505312"><ele>725.0</ele><time>2026-03-30T09:12:16Z</time></trkpt><trkpt lat="41.891578962236174" lon="1.5747628284767445"><ele>726.0</ele><time>2026-03-30T09:12:17Z</time></trkpt><trkpt lat="41.891576000632845" lon="1.5745248045354676"><ele>727.0</ele><time>2026-03-30T09:12:18Z</time></trkpt><trkpt lat="41.891567572548595" lon="1.5742856682990076"><ele>727.6666666666667</ele><time>2026-03-30T09:12:19Z</time></trkpt><trkpt lat="41.891570125450144" lon="1.5740360968480136"><ele>728.3333333333334</ele><time>2026-03-30T09:12:20Z</time></trkpt><trkpt lat="41.891572666738654" lon="1.5737660004726703"><ele>729.0</ele><time>2026-03-30T09:12:21Z</time></trkpt><trkpt lat="41.89157010491611" lon="1.5734904869031956"><ele>729.6666666666666</ele><time>2026-03-30T09:12:22Z</time></trkpt><trkpt lat="41.891564610633516" lon="1.5732080874969798"><ele>730.3333333333333</ele><time>2026-03-30T09:12:23Z</time></trkpt><trkpt lat="41.89154565459598" lon="1.5729349758734443"><ele>731.0</ele><time>2026-03-30T09:12:24Z</time></trkpt><trkpt lat="41.89150622888956" lon="1.5726696905369233"><ele>731.6666666666666</ele><time>2026-03-30T09:12:25Z</time></trkpt><trkpt lat="41.891456930193016" lon="1.5724083393485164"><ele>732.3333333333334</ele><time>2026-03-30T09:12:26Z</time></trkpt><trkpt lat="41.891393373779586" lon="1.5721485371283914"><ele>733.0</ele><time>2026-03-30T09:12:27Z</time></trkpt><trkpt lat="41.89131154393926" lon="1.5718874046555447"><ele>735.0</ele><time>2026-03-30T09:12:28Z</time></trkpt><trkpt lat="41.89121231943326" lon="1.5716344436375396"><ele>737.0</ele><time>2026-03-30T09:12:29Z</time></trkpt><trkpt lat="41.89109867757794" lon="1.5713988724699282"><ele>739.0</ele><time>2026-03-30T09:12:30Z</time></trkpt><trkpt lat="41.890979986804375" lon="1.571169000777203"><ele>737.0</ele><time>2026-03-30T09:12:31Z</time></trkpt><trkpt lat="41.89085888431825" lon="1.57095471354909"><ele>735.0</ele><time>2026-03-30T09:12:32Z</time></trkpt><trkpt lat="41.8907400528481" lon="1.570749316895426"><ele>733.0</ele><time>2026-03-30T09:12:33Z</time></trkpt><trkpt lat="41.89062356935876" lon="1.57054473231153"><ele>735.0</ele><time>2026-03-30T09:12:34Z</time></trkpt><trkpt lat="41.890512659729424" lon="1.5703367458134683"><ele>737.0</ele><time>2026-03-30T09:12:35Z</time></trkpt><trkpt lat="41.89040632408318" lon="1.5701283292224426"><ele>739.0</ele><time>2026-03-30T09:12:36Z</time></trkpt><trkpt lat="41.89030190137143" lon="1.5699150935486734"><ele>739.0</ele><time>2026-03-30T09:12:37Z</time></trkpt><trkpt lat="41.89021451636162" lon="1.5696978416659857"><ele>739.0</ele><time>2026-03-30T09:12:38Z</time></trkpt><trkpt lat="41.89014184611545" lon="1.5694718327828727"><ele>739.0</ele><time>2026-03-30T09:12:39Z</time></trkpt><trkpt lat="41.89003361624992" lon="1.5692713323267722"><ele>737.6666666666667</ele><time>2026-03-30T09:12:40Z</time></trkpt><trkpt lat="41.89001866549949" lon="1.5690060589243402"><ele>736.3333333333334</ele><time>2026-03-30T09:12:41Z</time></trkpt><trkpt lat="41.889973720374584" lon="1.5687749028686708"><ele>735.0</ele><time>2026-03-30T09:12:42Z</time></trkpt><trkpt lat="41.889944687105654" lon="1.5685689084648553"><ele>735.0</ele><time>2026-03-30T09:12:43Z</time></trkpt><trkpt lat="41.88992577507985" lon="1.5683830202381062"><ele>735.0</ele><time>2026-03-30T09:12:44Z</time></trkpt><trkpt lat="41.88991213269868" lon="1.5681889931923"><ele>735.0</ele><time>2026-03-30T09:12:45Z</time></trkpt><trkpt lat="41.88990509570639" lon="1.5679599885254278"><ele>734.0</ele><time>2026-03-30T09:12:46Z</time></trkpt><trkpt lat="41.88990347953122" lon="1.5677118215087087"><ele>733.0</ele><time>2026-03-30T09:12:47Z</time></trkpt><trkpt lat="41.88991465426121" lon="1.5674670365232464"><ele>732.0</ele><time>2026-03-30T09:12:48Z</time></trkpt><trkpt lat="41.88993115010027" lon="1.5672321238043998"><ele>731.3333333333334</ele><time>2026-03-30T09:12:49Z</time></trkpt><trkpt lat="41.88995788905617" lon="1.5670080712279368"><ele>730.6666666666667</ele><time>2026-03-30T09:12:50Z</time></trkpt><trkpt lat="41.890000724194635" lon="1.5667895355720272"><ele>730.0</ele><time>2026-03-30T09:12:51Z</time></trkpt><trkpt lat="41.890058003135636" lon="1.566576284417379"><ele>732.6666666666667</ele><time>2026-03-30T09:12:52Z</time></trkpt><trkpt lat="41.890123320375174" lon="1.5663717699487845"><ele>735.3333333333334</ele><time>2026-03-30T09:12:53Z</time></trkpt><trkpt lat="41.89019287828419" lon="1.5661722275226657"><ele>738.0</ele><time>2026-03-30T09:12:54Z</time></trkpt><trkpt lat="41.890265575345246" lon="1.5659648264828723"><ele>737.3333333333334</ele><time>2026-03-30T09:12:55Z</time></trkpt><trkpt lat="41.89034399012362" lon="1.5657509553204583"><ele>736.6666666666667</ele><time>2026-03-30T09:12:56Z</time></trkpt><trkpt lat="41.89043134319639" lon="1.5655464180040528"><ele>736.0</ele><time>2026-03-30T09:12:57Z</time></trkpt><trkpt lat="41.89053194712315" lon="1.5653418536044876"><ele>736.0</ele><time>2026-03-30T09:12:58Z</time></trkpt><trkpt lat="41.89062698718836" lon="1.5651095086349038"><ele>736.0</ele><time>2026-03-30T09:12:59Z</time></trkpt><trkpt lat="41.89073885861473" lon="1.564885234901229"><ele>736.0</ele><time>2026-03-30T09:13:00Z</time></trkpt><trkpt lat="41.89087072453131" lon="1.5646686784138646"><ele>737.3333333333334</ele><time>2026-03-30T09:13:01Z</time></trkpt><trkpt lat="41.891001897433306" lon="1.5644521634420685"><ele>738.6666666666666</ele><time>2026-03-30T09:13:02Z</time></trkpt><trkpt lat="41.89113821120959" lon="1.5642367161978405"><ele>740.0</ele><time>2026-03-30T09:13:03Z</time></trkpt><trkpt lat="41.89127985509346" lon="1.5640316192883899"><ele>740.0</ele><time>2026-03-30T09:13:04Z</time></trkpt><trkpt lat="41.891420278955984" lon="1.5638318452550706"><ele>740.0</ele><time>2026-03-30T09:13:05Z</time></trkpt><trkpt lat="41.891549262857055" lon="1.5636158145724186"><ele>740.0</ele><time>2026-03-30T09:13:06Z</time></trkpt><trkpt lat="41.89167436584942" lon="1.5634003021574574"><ele>740.0</ele><time>2026-03-30T09:13:07Z</time></trkpt><trkpt lat="41.891803259485" lon="1.5631827087661736"><ele>740.0</ele><time>2026-03-30T09:13:08Z</time></trkpt><trkpt lat="41.89193525368883" lon="1.5629729786624642"><ele>740.0</ele><time>2026-03-30T09:13:09Z</time></trkpt><trkpt lat="41.89206988745912" lon="1.5627718480308184"><ele>740.0</ele><time>2026-03-30T09:13:10Z</time></trkpt><trkpt lat="41.89221029053943" lon="1.5625724576656566"><ele>740.0</ele><time>2026-03-30T09:13:11Z</time></trkpt><trkpt lat="41.8923540663056" lon="1.5623865923437525"><ele>740.0</ele><time>2026-03-30T09:13:12Z</time></trkpt><trkpt lat="41.89250835803454" lon="1.5622144550130292"><ele>741.3333333333333</ele><time>2026-03-30T09:13:13Z</time></trkpt><trkpt lat="41.89269179459123" lon="1.5620529621532826"><ele>742.6666666666666</ele><time>2026-03-30T09:13:14Z</time></trkpt><trkpt lat="41.89289380865763" lon="1.5619209649912724"><ele>744.0</ele><time>2026-03-30T09:13:15Z</time></trkpt><trkpt lat="41.89310077551254" lon="1.561810954206533"><ele>745.3333333333334</ele><time>2026-03-30T09:13:16Z</time></trkpt><trkpt lat="41.89331099351615" lon="1.5617243794323665"><ele>746.6666666666667</ele><time>2026-03-30T09:13:17Z</time></trkpt><trkpt lat="41.89350573037512" lon="1.5616742190317083"><ele>748.0</ele><time>2026-03-30T09:13:18Z</time></trkpt><trkpt lat="41.893704919401806" lon="1.561636943655692"><ele>750.3333333333334</ele><time>2026-03-30T09:13:19Z</time></trkpt><trkpt lat="41.8939029652008" lon="1.561611689552162"><ele>752.6666666666666</ele><time>2026-03-30T09:13:20Z</time></trkpt><trkpt lat="41.8941160494005" lon="1.5615985559886816"><ele>755.0</ele><time>2026-03-30T09:13:21Z</time></trkpt><trkpt lat="41.894337298177305" lon="1.5615796083518585"><ele>757.0</ele><time>2026-03-30T09:13:22Z</time></trkpt><trkpt lat="41.89455518197465" lon="1.5615615987294282"><ele>759.0</ele><time>2026-03-30T09:13:23Z</time></trkpt><trkpt lat="41.89476517139017" lon="1.5615447823498203"><ele>761.0</ele><time>2026-03-30T09:13:24Z</time></trkpt><trkpt lat="41.89497308648071" lon="1.5615282940011281"><ele>764.0</ele><time>2026-03-30T09:13:25Z</time></trkpt><trkpt lat="41.8951743739414" lon="1.561513436971498"><ele>767.0</ele><time>2026-03-30T09:13:26Z</time></trkpt><trkpt lat="41.89536510124403" lon="1.5615014223556885"><ele>770.0</ele><time>2026-03-30T09:13:27Z</time></trkpt><trkpt lat="41.89555558615395" lon="1.5614878856605507"><ele>770.0</ele><time>2026-03-30T09:13:28Z</time></trkpt><trkpt lat="41.89575659329458" lon="1.561456187047322"><ele>770.0</ele><time>2026-03-30T09:13:29Z</time></trkpt><trkpt lat="41.895951203402795" lon="1.5613873013708763"><ele>770.0</ele><time>2026-03-30T09:13:30Z</time></trkpt><trkpt lat="41.896134808886934" lon="1.561284265637415"><ele>775.0</ele><time>2026-03-30T09:13:31Z</time></trkpt><trkpt lat="41.896311460273914" lon="1.5611565534553744"><ele>780.0</ele><time>2026-03-30T09:13:32Z</time></trkpt><trkpt lat="41.896474277037775" lon="1.5609884711285258"><ele>785.0</ele><time>2026-03-30T09:13:33Z</time></trkpt><trkpt lat="41.896607165236986" lon="1.5607789623703152"><ele>785.0</ele><time>2026-03-30T09:13:34Z</time></trkpt><trkpt lat="41.89672696483178" lon="1.5605435479803562"><ele>785.0</ele><time>2026-03-30T09:13:35Z</time></trkpt><trkpt lat="41.896823668267906" lon="1.5602974838042407"><ele>785.0</ele><time>2026-03-30T09:13:36Z</time></trkpt><trkpt lat="41.89688694260946" lon="1.5600475180413205"><ele>789.3333333333334</ele><time>2026-03-30T09:13:37Z</time></trkpt><trkpt lat="41.89692283359371" lon="1.559780770976834"><ele>793.6666666666667</ele><time>2026-03-30T09:13:38Z</time></trkpt><trkpt lat="41.896925444744895" lon="1.5595140610811005"><ele>798.0</ele><time>2026-03-30T09:13:39Z</time></trkpt><trkpt lat="41.89690270025686" lon="1.5592385352656566"><ele>797.6666666666667</ele><time>2026-03-30T09:13:40Z</time></trkpt><trkpt lat="41.896854134678804" lon="1.5589703042839975"><ele>797.3333333333334</ele><time>2026-03-30T09:13:41Z</time></trkpt><trkpt lat="41.89677631305206" lon="1.558709797981198"><ele>797.0</ele><time>2026-03-30T09:13:42Z</time></trkpt><trkpt lat="41.8966729975286" lon="1.5584807782072092"><ele>797.0</ele><time>2026-03-30T09:13:43Z</time></trkpt><trkpt lat="41.89654174172041" lon="1.5582712629223965"><ele>797.0</ele><time>2026-03-30T09:13:44Z</time></trkpt><trkpt lat="41.89638723186005" lon="1.5580697998140047"><ele>797.0</ele><time>2026-03-30T09:13:45Z</time></trkpt><trkpt lat="41.896220300105625" lon="1.5578746221005206"><ele>799.6666666666667</ele><time>2026-03-30T09:13:46Z</time></trkpt><trkpt lat="41.89605146132007" lon="1.5576841186516461"><ele>802.3333333333333</ele><time>2026-03-30T09:13:47Z</time></trkpt><trkpt lat="41.895893945161355" lon="1.5575010065071875"><ele>805.0</ele><time>2026-03-30T09:13:48Z</time></trkpt><trkpt lat="41.89574365694975" lon="1.557317621432032"><ele>805.0</ele><time>2026-03-30T09:13:49Z</time></trkpt><trkpt lat="41.89559344056316" lon="1.5571407583236423"><ele>805.0</ele><time>2026-03-30T09:13:50Z</time></trkpt><trkpt lat="41.89545460686577" lon="1.5569522543449053"><ele>805.0</ele><time>2026-03-30T09:13:51Z</time></trkpt><trkpt lat="41.89530516584647" lon="1.5567555583171155"><ele>804.6666666666666</ele><time>2026-03-30T09:13:52Z</time></trkpt><trkpt lat="41.89516689088332" lon="1.556552502246189"><ele>804.3333333333333</ele><time>2026-03-30T09:13:53Z</time></trkpt><trkpt lat="41.89503947835925" lon="1.5563185384959497"><ele>804.0</ele><time>2026-03-30T09:13:54Z</time></trkpt><trkpt lat="41.89491949607898" lon="1.5560638650930438"><ele>805.0</ele><time>2026-03-30T09:13:55Z</time></trkpt><trkpt lat="41.89481248632946" lon="1.5557959125059666"><ele>806.0</ele><time>2026-03-30T09:13:56Z</time></trkpt><trkpt lat="41.89472909036112" lon="1.55552966313724"><ele>807.0</ele><time>2026-03-30T09:13:57Z</time></trkpt><trkpt lat="41.89466520720316" lon="1.5552606180369988"><ele>807.3333333333333</ele><time>2026-03-30T09:13:58Z</time></trkpt><trkpt lat="41.89461683075815" lon="1.554987126659706"><ele>807.6666666666666</ele><time>2026-03-30T09:13:59Z</time></trkpt><trkpt lat="41.89458286838187" lon="1.5547079450339911"><ele>808.0</ele><time>2026-03-30T09:14:00Z</time></trkpt><trkpt lat="41.89456480577431" lon="1.5544227184227575"><ele>808.0</ele><time>2026-03-30T09:14:01Z</time></trkpt><trkpt lat="41.89453905183486" lon="1.5541335492239008"><ele>808.0</ele><time>2026-03-30T09:14:02Z</time></trkpt><trkpt lat="41.89453127318874" lon="1.5538416929439975"><ele>808.0</ele><time>2026-03-30T09:14:03Z</time></trkpt><trkpt lat="41.89452206472149" lon="1.5535534550420491"><ele>808.0</ele><time>2026-03-30T09:14:04Z</time></trkpt><trkpt lat="41.89450897134229" lon="1.55325845355119"><ele>808.0</ele><time>2026-03-30T09:14:05Z</time></trkpt><trkpt lat="41.89449679954913" lon="1.552963377638222"><ele>808.0</ele><time>2026-03-30T09:14:06Z</time></trkpt><trkpt lat="41.89448450163906" lon="1.5526631031429472"><ele>809.6666666666666</ele><time>2026-03-30T09:14:07Z</time></trkpt><trkpt lat="41.894475538809935" lon="1.5523677597752374"><ele>811.3333333333333</ele><time>2026-03-30T09:14:08Z</time></trkpt><trkpt lat="41.894467173445456" lon="1.5520796012116305"><ele>813.0</ele><time>2026-03-30T09:14:09Z</time></trkpt><trkpt lat="41.89445438986008" lon="1.5517849064368927"><ele>814.6666666666667</ele><time>2026-03-30T09:14:10Z</time></trkpt><trkpt lat="41.89443834398106" lon="1.5514895474452999"><ele>816.3333333333334</ele><time>2026-03-30T09:14:11Z</time></trkpt><trkpt lat="41.89442495674009" lon="1.5511980926695266"><ele>818.0</ele><time>2026-03-30T09:14:12Z</time></trkpt><trkpt lat="41.8944220959264" lon="1.5508989014142605"><ele>818.0</ele><time>2026-03-30T09:14:13Z</time></trkpt><trkpt lat="41.8944322933703" lon="1.5505940778891336"><ele>818.0</ele><time>2026-03-30T09:14:14Z</time></trkpt><trkpt lat="41.894466287757346" lon="1.550303304120072"><ele>818.0</ele><time>2026-03-30T09:14:15Z</time></trkpt><trkpt lat="41.8945174163931" lon="1.5500082904423569"><ele>816.0</ele><time>2026-03-30T09:14:16Z</time></trkpt><trkpt lat="41.894589187787375" lon="1.549724648482257"><ele>814.0</ele><time>2026-03-30T09:14:17Z</time></trkpt><trkpt lat="41.89467127154344" lon="1.5494432839862733"><ele>812.0</ele><time>2026-03-30T09:14:18Z</time></trkpt><trkpt lat="41.89476964911032" lon="1.5491695646108634"><ele>811.3333333333334</ele><time>2026-03-30T09:14:19Z</time></trkpt><trkpt lat="41.894883270758406" lon="1.5489150391814688"><ele>810.6666666666667</ele><time>2026-03-30T09:14:20Z</time></trkpt><trkpt lat="41.89500867217623" lon="1.5486674485191738"><ele>810.0</ele><time>2026-03-30T09:14:21Z</time></trkpt><trkpt lat="41.8951347974446" lon="1.5484191889681584"><ele>810.0</ele><time>2026-03-30T09:14:22Z</time></trkpt><trkpt lat="41.89525733336477" lon="1.5481754518970836"><ele>810.0</ele><time>2026-03-30T09:14:23Z</time></trkpt><trkpt lat="41.895375363281254" lon="1.5479297906798748"><ele>810.0</ele><time>2026-03-30T09:14:24Z</time></trkpt><trkpt lat="41.895500457044164" lon="1.5476962864048869"><ele>808.3333333333333</ele><time>2026-03-30T09:14:25Z</time></trkpt><trkpt lat="41.89561726357189" lon="1.547454351169041"><ele>806.6666666666666</ele><time>2026-03-30T09:14:26Z</time></trkpt><trkpt lat="41.895717511712526" lon="1.5472039840895349"><ele>805.0</ele><time>2026-03-30T09:14:27Z</time></trkpt><trkpt lat="41.89579968432086" lon="1.5469355956691493"><ele>804.0</ele><time>2026-03-30T09:14:28Z</time></trkpt><trkpt lat="41.89587015991086" lon="1.5466596355619084"><ele>803.0</ele><time>2026-03-30T09:14:29Z</time></trkpt><trkpt lat="41.89593561502897" lon="1.5463806407322154"><ele>802.0</ele><time>2026-03-30T09:14:30Z</time></trkpt><trkpt lat="41.895988074350406" lon="1.5460947087847081"><ele>800.3333333333333</ele><time>2026-03-30T09:14:31Z</time></trkpt><trkpt lat="41.89602596241874" lon="1.5458004604089042"><ele>798.6666666666667</ele><time>2026-03-30T09:14:32Z</time></trkpt><trkpt lat="41.89605601417304" lon="1.5455048240331286"><ele>797.0</ele><time>2026-03-30T09:14:33Z</time></trkpt><trkpt lat="41.89608298648509" lon="1.5452029408454848"><ele>797.0</ele><time>2026-03-30T09:14:34Z</time></trkpt><trkpt lat="41.89610553258945" lon="1.5448980721940229"><ele>797.0</ele><time>2026-03-30T09:14:35Z</time></trkpt><trkpt lat="41.896128511058414" lon="1.5445949322118246"><ele>797.0</ele><time>2026-03-30T09:14:36Z</time></trkpt><trkpt lat="41.89615430917" lon="1.544297252785775"><ele>797.0</ele><time>2026-03-30T09:14:37Z</time></trkpt><trkpt lat="41.89617391439666" lon="1.5440010152501236"><ele>797.0</ele><time>2026-03-30T09:14:38Z</time></trkpt><trkpt lat="41.89619327623604" lon="1.5437171033714745"><ele>796.3333333333334</ele><time>2026-03-30T09:14:39Z</time></trkpt><trkpt lat="41.896224724791466" lon="1.5434320921408886"><ele>795.6666666666667</ele><time>2026-03-30T09:14:40Z</time></trkpt><trkpt lat="41.89627242103784" lon="1.5431396737978154"><ele>795.0</ele><time>2026-03-30T09:14:41Z</time></trkpt><trkpt lat="41.89633339496043" lon="1.5428392688831507"><ele>793.5</ele><time>2026-03-30T09:14:42Z</time></trkpt><trkpt lat="41.89640610423169" lon="1.5425450751095107"><ele>792.0</ele><time>2026-03-30T09:14:43Z</time></trkpt><trkpt lat="41.896492074054954" lon="1.542269781197751"><ele>792.0</ele><time>2026-03-30T09:14:44Z</time></trkpt><trkpt lat="41.896590398376205" lon="1.5420146666270709"><ele>792.0</ele><time>2026-03-30T09:14:45Z</time></trkpt><trkpt lat="41.896695324909125" lon="1.541755170223642"><ele>792.0</ele><time>2026-03-30T09:14:46Z</time></trkpt><trkpt lat="41.896808235768695" lon="1.5415088887986073"><ele>792.3333333333333</ele><time>2026-03-30T09:14:47Z</time></trkpt><trkpt lat="41.89693282723304" lon="1.5412679821846473"><ele>792.6666666666666</ele><time>2026-03-30T09:14:48Z</time></trkpt><trkpt lat="41.8970643244644" lon="1.5410254770658485"><ele>793.0</ele><time>2026-03-30T09:14:49Z</time></trkpt><trkpt lat="41.897195320561856" lon="1.5407839487803556"><ele>791.0</ele><time>2026-03-30T09:14:50Z</time></trkpt><trkpt lat="41.89732665198075" lon="1.5405390970279706"><ele>789.0</ele><time>2026-03-30T09:14:51Z</time></trkpt><trkpt lat="41.897459168225225" lon="1.5402866919777747"><ele>788.0</ele><time>2026-03-30T09:14:52Z</time></trkpt><trkpt lat="41.89759384494459" lon="1.5400282305734623"><ele>787.0</ele><time>2026-03-30T09:14:53Z</time></trkpt><trkpt lat="41.897729530713754" lon="1.5397660272382308"><ele>787.0</ele><time>2026-03-30T09:14:54Z</time></trkpt><trkpt lat="41.8978600659242" lon="1.5395129785315302"><ele>787.0</ele><time>2026-03-30T09:14:55Z</time></trkpt><trkpt lat="41.89799290382679" lon="1.5392642888045103"><ele>787.0</ele><time>2026-03-30T09:14:56Z</time></trkpt><trkpt lat="41.89812766146389" lon="1.5390169474291673"><ele>787.0</ele><time>2026-03-30T09:14:57Z</time></trkpt><trkpt lat="41.89825633694682" lon="1.538774462865902"><ele>786.3333333333333</ele><time>2026-03-30T09:14:58Z</time></trkpt><trkpt lat="41.898384889696416" lon="1.5385283476982545"><ele>785.6666666666667</ele><time>2026-03-30T09:14:59Z</time></trkpt><trkpt lat="41.89851401734446" lon="1.5382851156125363"><ele>785.0</ele><time>2026-03-30T09:15:00Z</time></trkpt><trkpt lat="41.898640582621134" lon="1.538042176359744"><ele>786.0</ele><time>2026-03-30T09:15:01Z</time></trkpt><trkpt lat="41.89876690831506" lon="1.5377948350183315"><ele>787.0</ele><time>2026-03-30T09:15:02Z</time></trkpt><trkpt lat="41.898895239343396" lon="1.5375532986211888"><ele>788.0</ele><time>2026-03-30T09:15:03Z</time></trkpt><trkpt lat="41.89902704773378" lon="1.537309957142737"><ele>788.0</ele><time>2026-03-30T09:15:04Z</time></trkpt><trkpt lat="41.899159840438685" lon="1.5370635490350035"><ele>788.0</ele><time>2026-03-30T09:15:05Z</time></trkpt><trkpt lat="41.89929230190227" lon="1.536813106213975"><ele>788.6666666666667</ele><time>2026-03-30T09:15:06Z</time></trkpt><trkpt lat="41.899420218673924" lon="1.536566416806286"><ele>789.3333333333333</ele><time>2026-03-30T09:15:07Z</time></trkpt><trkpt lat="41.89954977758928" lon="1.5363208763659677"><ele>790.0</ele><time>2026-03-30T09:15:08Z</time></trkpt><trkpt lat="41.89968748416425" lon="1.5360751819509382"><ele>790.0</ele><time>2026-03-30T09:15:09Z</time></trkpt><trkpt lat="41.8998376941469" lon="1.5358423778649464"><ele>790.0</ele><time>2026-03-30T09:15:10Z</time></trkpt><trkpt lat="41.900003763788064" lon="1.5356321522025396"><ele>791.0</ele><time>2026-03-30T09:15:11Z</time></trkpt><trkpt lat="41.90018869553299" lon="1.5354462431684033"><ele>792.0</ele><time>2026-03-30T09:15:12Z</time></trkpt><trkpt lat="41.90038034455495" lon="1.5352864730505162"><ele>793.6666666666667</ele><time>2026-03-30T09:15:13Z</time></trkpt><trkpt lat="41.90057466632102" lon="1.5351521277532318"><ele>795.3333333333334</ele><time>2026-03-30T09:15:14Z</time></trkpt><trkpt lat="41.900771010037104" lon="1.5350473084036274"><ele>797.0</ele><time>2026-03-30T09:15:15Z</time></trkpt><trkpt lat="41.90096779982167" lon="1.5349689337605017"><ele>799.0</ele><time>2026-03-30T09:15:16Z</time></trkpt><trkpt lat="41.90117229527409" lon="1.5349135290157776"><ele>801.0</ele><time>2026-03-30T09:15:17Z</time></trkpt><trkpt lat="41.90137432839873" lon="1.5348849383636727"><ele>803.0</ele><time>2026-03-30T09:15:18Z</time></trkpt><trkpt lat="41.90157974988569" lon="1.5348656488599395"><ele>804.6666666666667</ele><time>2026-03-30T09:15:19Z</time></trkpt><trkpt lat="41.90178418324731" lon="1.5348712506199254"><ele>806.3333333333333</ele><time>2026-03-30T09:15:20Z</time></trkpt><trkpt lat="41.901985460141404" lon="1.5349069170000782"><ele>808.0</ele><time>2026-03-30T09:15:21Z</time></trkpt><trkpt lat="41.90218509783701" lon="1.5349495409166096"><ele>808.0</ele><time>2026-03-30T09:15:22Z</time></trkpt><trkpt lat="41.90238445650526" lon="1.535015623277205"><ele>808.0</ele><time>2026-03-30T09:15:23Z</time></trkpt><trkpt lat="41.90258048625773" lon="1.5351146436239418"><ele>808.0</ele><time>2026-03-30T09:15:24Z</time></trkpt><trkpt lat="41.90276891954709" lon="1.5352370961096244"><ele>807.6666666666666</ele><time>2026-03-30T09:15:25Z</time></trkpt><trkpt lat="41.90295104729579" lon="1.5353699626619173"><ele>807.3333333333333</ele><time>2026-03-30T09:15:26Z</time></trkpt><trkpt lat="41.903124263200255" lon="1.5355056324617296"><ele>807.0</ele><time>2026-03-30T09:15:27Z</time></trkpt><trkpt lat="41.903291294382825" lon="1.5356421587144282"><ele>808.3333333333333</ele><time>2026-03-30T09:15:28Z</time></trkpt><trkpt lat="41.90345977492045" lon="1.5357760220427492"><ele>809.6666666666666</ele><time>2026-03-30T09:15:29Z</time></trkpt><trkpt lat="41.9036296895043" lon="1.535899766379168"><ele>811.0</ele><time>2026-03-30T09:15:30Z</time></trkpt><trkpt lat="41.90380930359093" lon="1.536003017581482"><ele>811.0</ele><time>2026-03-30T09:15:31Z</time></trkpt><trkpt lat="41.9039968591559" lon="1.5360773569692334"><ele>811.0</ele><time>2026-03-30T09:15:32Z</time></trkpt><trkpt lat="41.9041945730251" lon="1.5361188278652198"><ele>811.0</ele><time>2026-03-30T09:15:33Z</time></trkpt><trkpt lat="41.90439300940285" lon="1.5361213472601418"><ele>814.0</ele><time>2026-03-30T09:15:34Z</time></trkpt><trkpt lat="41.9045931697629" lon="1.5360915920360663"><ele>817.0</ele><time>2026-03-30T09:15:35Z</time></trkpt><trkpt lat="41.90478564398214" lon="1.536025950017856"><ele>820.0</ele><time>2026-03-30T09:15:36Z</time></trkpt><trkpt lat="41.904972288204995" lon="1.5359377209174905"><ele>823.3333333333333</ele><time>2026-03-30T09:15:37Z</time></trkpt><trkpt lat="41.9051467746976" lon="1.53581511925566"><ele>826.6666666666667</ele><time>2026-03-30T09:15:38Z</time></trkpt><trkpt lat="41.9053109084622" lon="1.5356657526999669"><ele>830.0</ele><time>2026-03-30T09:15:39Z</time></trkpt><trkpt lat="41.90546619015855" lon="1.5354979488268825"><ele>829.6666666666667</ele><time>2026-03-30T09:15:40Z</time></trkpt><trkpt lat="41.90562289068455" lon="1.5353161768651822"><ele>829.3333333333333</ele><time>2026-03-30T09:15:41Z</time></trkpt><trkpt lat="41.905779474645946" lon="1.535136098191483"><ele>829.0</ele><time>2026-03-30T09:15:42Z</time></trkpt><trkpt lat="41.90594180853941" lon="1.5349654972908973"><ele>829.0</ele><time>2026-03-30T09:15:43Z</time></trkpt><trkpt lat="41.90610844396199" lon="1.534792619206432"><ele>829.0</ele><time>2026-03-30T09:15:44Z</time></trkpt><trkpt lat="41.90626431106377" lon="1.5346260625944403"><ele>829.0</ele><time>2026-03-30T09:15:45Z</time></trkpt><trkpt lat="41.90644840424803" lon="1.5344352616259942"><ele>827.0</ele><time>2026-03-30T09:15:46Z</time></trkpt><trkpt lat="41.9066231867687" lon="1.5342390255146199"><ele>825.0</ele><time>2026-03-30T09:15:47Z</time></trkpt><trkpt lat="41.90679356119342" lon="1.534038474248719"><ele>824.5</ele><time>2026-03-30T09:15:48Z</time></trkpt><trkpt lat="41.90695822984091" lon="1.5338267405168853"><ele>824.0</ele><time>2026-03-30T09:15:49Z</time></trkpt><trkpt lat="41.90710590059977" lon="1.5336028213331558"><ele>824.0</ele><time>2026-03-30T09:15:50Z</time></trkpt><trkpt lat="41.907233772953525" lon="1.5333655914229585"><ele>824.0</ele><time>2026-03-30T09:15:51Z</time></trkpt><trkpt lat="41.9073443731631" lon="1.5331111678434701"><ele>824.0</ele><time>2026-03-30T09:15:52Z</time></trkpt><trkpt lat="41.9074358887177" lon="1.5328493224929853"><ele>825.0</ele><time>2026-03-30T09:15:53Z</time></trkpt><trkpt lat="41.90751384540235" lon="1.5325692952076737"><ele>826.0</ele><time>2026-03-30T09:15:54Z</time></trkpt><trkpt lat="41.90757507065832" lon="1.5322867102320432"><ele>827.0</ele><time>2026-03-30T09:15:55Z</time></trkpt><trkpt lat="41.90763254505196" lon="1.5319952263109275"><ele>827.0</ele><time>2026-03-30T09:15:56Z</time></trkpt><trkpt lat="41.90769009164577" lon="1.5317035997139683"><ele>827.0</ele><time>2026-03-30T09:15:57Z</time></trkpt><trkpt lat="41.907744716810974" lon="1.531409073330066"><ele>831.0</ele><time>2026-03-30T09:15:58Z</time></trkpt><trkpt lat="41.90780066546422" lon="1.5311160176216676"><ele>835.0</ele><time>2026-03-30T09:15:59Z</time></trkpt><trkpt lat="41.9078586103409" lon="1.5308218870669303"><ele>835.0</ele><time>2026-03-30T09:16:00Z</time></trkpt><trkpt lat="41.907910921305884" lon="1.5305376321288262"><ele>835.0</ele><time>2026-03-30T09:16:01Z</time></trkpt><trkpt lat="41.90796368663354" lon="1.530250522810885"><ele>835.0</ele><time>2026-03-30T09:16:02Z</time></trkpt><trkpt lat="41.908017640067555" lon="1.5299663175037437"><ele>835.6666666666666</ele><time>2026-03-30T09:16:03Z</time></trkpt><trkpt lat="41.90807559732574" lon="1.5296865309864356"><ele>836.3333333333333</ele><time>2026-03-30T09:16:04Z</time></trkpt><trkpt lat="41.90813457053471" lon="1.5294020671393453"><ele>837.0</ele><time>2026-03-30T09:16:05Z</time></trkpt><trkpt lat="41.90818984008996" lon="1.5291057015924283"><ele>834.0</ele><time>2026-03-30T09:16:06Z</time></trkpt><trkpt lat="41.90824776855114" lon="1.528795435960553"><ele>831.0</ele><time>2026-03-30T09:16:07Z</time></trkpt><trkpt lat="41.90830740758482" lon="1.528486685772965"><ele>834.0</ele><time>2026-03-30T09:16:08Z</time></trkpt><trkpt lat="41.908368816295194" lon="1.5281775989974227"><ele>837.0</ele><time>2026-03-30T09:16:09Z</time></trkpt><trkpt lat="41.90843251806116" lon="1.5278719022677643"><ele>837.0</ele><time>2026-03-30T09:16:10Z</time></trkpt><trkpt lat="41.90849940619292" lon="1.5275732339356125"><ele>837.0</ele><time>2026-03-30T09:16:11Z</time></trkpt><trkpt lat="41.908576443501566" lon="1.5272855942450005"><ele>838.6666666666667</ele><time>2026-03-30T09:16:12Z</time></trkpt><trkpt lat="41.90866597919501" lon="1.5270162691324707"><ele>840.3333333333334</ele><time>2026-03-30T09:16:13Z</time></trkpt><trkpt lat="41.90876105469017" lon="1.5267475145962701"><ele>842.0</ele><time>2026-03-30T09:16:14Z</time></trkpt><trkpt lat="41.90885452496826" lon="1.5264848996443385"><ele>839.6666666666667</ele><time>2026-03-30T09:16:15Z</time></trkpt><trkpt lat="41.90894971060718" lon="1.5262173136805064"><ele>837.3333333333333</ele><time>2026-03-30T09:16:16Z</time></trkpt><trkpt lat="41.9090417106137" lon="1.525953165340557"><ele>835.0</ele><time>2026-03-30T09:16:17Z</time></trkpt><trkpt lat="41.90913803251509" lon="1.525684607303323"><ele>835.0</ele><time>2026-03-30T09:16:18Z</time></trkpt><trkpt lat="41.90923873317446" lon="1.5254125359401525"><ele>835.0</ele><time>2026-03-30T09:16:19Z</time></trkpt><trkpt lat="41.9093403879346" lon="1.5251433865587267"><ele>837.6666666666666</ele><time>2026-03-30T09:16:20Z</time></trkpt><trkpt lat="41.90943745671897" lon="1.5248758896898205"><ele>840.3333333333333</ele><time>2026-03-30T09:16:21Z</time></trkpt><trkpt lat="41.90953366673873" lon="1.524607919736345"><ele>843.0</ele><time>2026-03-30T09:16:22Z</time></trkpt><trkpt lat="41.9096242466282" lon="1.5243450851833378"><ele>844.3333333333333</ele><time>2026-03-30T09:16:23Z</time></trkpt><trkpt lat="41.90970191566071" lon="1.5240811928599294"><ele>845.6666666666666</ele><time>2026-03-30T09:16:24Z</time></trkpt><trkpt lat="41.90976011469049" lon="1.5238025883186759"><ele>847.0</ele><time>2026-03-30T09:16:25Z</time></trkpt><trkpt lat="41.909793088381996" lon="1.5235259177869906"><ele>848.0</ele><time>2026-03-30T09:16:26Z</time></trkpt><trkpt lat="41.90981227178566" lon="1.5232501341474014"><ele>849.0</ele><time>2026-03-30T09:16:27Z</time></trkpt><trkpt lat="41.90982182463448" lon="1.52297001125286"><ele>850.0</ele><time>2026-03-30T09:16:28Z</time></trkpt><trkpt lat="41.90982879556924" lon="1.522663254554871"><ele>850.3333333333333</ele><time>2026-03-30T09:16:29Z</time></trkpt><trkpt lat="41.90983757229811" lon="1.522361993485552"><ele>850.6666666666667</ele><time>2026-03-30T09:16:30Z</time></trkpt><trkpt lat="41.90985664735832" lon="1.5220732531489116"><ele>851.0</ele><time>2026-03-30T09:16:31Z</time></trkpt><trkpt lat="41.909865853477996" lon="1.521776298270123"><ele>849.6666666666667</ele><time>2026-03-30T09:16:32Z</time></trkpt><trkpt lat="41.90988792739237" lon="1.5214891395708852"><ele>848.3333333333333</ele><time>2026-03-30T09:16:33Z</time></trkpt><trkpt lat="41.90991892601925" lon="1.5211911540704695"><ele>847.0</ele><time>2026-03-30T09:16:34Z</time></trkpt><trkpt lat="41.90995621076933" lon="1.5209010606057862"><ele>844.5</ele><time>2026-03-30T09:16:35Z</time></trkpt><trkpt lat="41.909999060938965" lon="1.5206043919144905"><ele>842.0</ele><time>2026-03-30T09:16:36Z</time></trkpt><trkpt lat="41.910053903354196" lon="1.5202954902413535"><ele>842.0</ele><time>2026-03-30T09:16:37Z</time></trkpt><trkpt lat="41.910168589491995" lon="1.5200303347577155"><ele>842.0</ele><time>2026-03-30T09:16:38Z</time></trkpt><trkpt lat="41.91028338835417" lon="1.51976764039629"><ele>841.6666666666667</ele><time>2026-03-30T09:16:39Z</time></trkpt><trkpt lat="41.910414111315525" lon="1.519519287833807"><ele>841.3333333333333</ele><time>2026-03-30T09:16:40Z</time></trkpt><trkpt lat="41.910559882768645" lon="1.519303279827458"><ele>841.0</ele><time>2026-03-30T09:16:41Z</time></trkpt><trkpt lat="41.910713560840996" lon="1.5191206636102743"><ele>841.0</ele><time>2026-03-30T09:16:42Z</time></trkpt><trkpt lat="41.91087033575102" lon="1.5189496319194915"><ele>841.0</ele><time>2026-03-30T09:16:43Z</time></trkpt><trkpt lat="41.91102114729617" lon="1.5187817891825202"><ele>841.0</ele><time>2026-03-30T09:16:44Z</time></trkpt><trkpt lat="41.91117055338812" lon="1.518614751414158"><ele>842.0</ele><time>2026-03-30T09:16:45Z</time></trkpt><trkpt lat="41.91132114595166" lon="1.5184149326514127"><ele>843.0</ele><time>2026-03-30T09:16:46Z</time></trkpt><trkpt lat="41.91146883301433" lon="1.5181964139569082"><ele>844.0</ele><time>2026-03-30T09:16:47Z</time></trkpt><trkpt lat="41.9116206474942" lon="1.517984197783312"><ele>847.3333333333333</ele><time>2026-03-30T09:16:48Z</time></trkpt><trkpt lat="41.911762753572845" lon="1.517762314904224"><ele>850.6666666666667</ele><time>2026-03-30T09:16:49Z</time></trkpt><trkpt lat="41.91187478906154" lon="1.51751898261846"><ele>854.0</ele><time>2026-03-30T09:16:50Z</time></trkpt><trkpt lat="41.91196266233361" lon="1.5172646367193794"><ele>855.0</ele><time>2026-03-30T09:16:51Z</time></trkpt><trkpt lat="41.91204248379886" lon="1.5170105747757021"><ele>856.0</ele><time>2026-03-30T09:16:52Z</time></trkpt><trkpt lat="41.91212245618094" lon="1.51676263182562"><ele>857.0</ele><time>2026-03-30T09:16:53Z</time></trkpt><trkpt lat="41.91220793425879" lon="1.5165108429842713"><ele>857.0</ele><time>2026-03-30T09:16:54Z</time></trkpt><trkpt lat="41.912291619797564" lon="1.516260163083597"><ele>857.0</ele><time>2026-03-30T09:16:55Z</time></trkpt><trkpt lat="41.912376177362226" lon="1.5160105715618024"><ele>857.0</ele><time>2026-03-30T09:16:56Z</time></trkpt><trkpt lat="41.91246171604381" lon="1.5157539930485304"><ele>854.6666666666667</ele><time>2026-03-30T09:16:57Z</time></trkpt><trkpt lat="41.91254224590929" lon="1.5154908790078432"><ele>852.3333333333333</ele><time>2026-03-30T09:16:58Z</time></trkpt><trkpt lat="41.91260888549077" lon="1.5152226619190103"><ele>850.0</ele><time>2026-03-30T09:16:59Z</time></trkpt><trkpt lat="41.91265225881479" lon="1.5149508834198568"><ele>850.0</ele><time>2026-03-30T09:17:00Z</time></trkpt><trkpt lat="41.91268076587258" lon="1.514676577611992"><ele>850.0</ele><time>2026-03-30T09:17:01Z</time></trkpt><trkpt lat="41.9127038658893" lon="1.5144040460036998"><ele>850.0</ele><time>2026-03-30T09:17:02Z</time></trkpt><trkpt lat="41.912730911976354" lon="1.5141367088177873"><ele>850.0</ele><time>2026-03-30T09:17:03Z</time></trkpt><trkpt lat="41.91276074138278" lon="1.5138694546827431"><ele>850.0</ele><time>2026-03-30T09:17:04Z</time></trkpt><trkpt lat="41.912790250290385" lon="1.513604429851294"><ele>850.0</ele><time>2026-03-30T09:17:05Z</time></trkpt><trkpt lat="41.9128226212814" lon="1.5133387262041258"><ele>850.0</ele><time>2026-03-30T09:17:06Z</time></trkpt><trkpt lat="41.91286431708813" lon="1.5130742421512393"><ele>850.0</ele><time>2026-03-30T09:17:07Z</time></trkpt><trkpt lat="41.91291891545077" lon="1.5127955821588346"><ele>850.0</ele><time>2026-03-30T09:17:08Z</time></trkpt><trkpt lat="41.91299596488489" lon="1.51251460793755"><ele>849.3333333333333</ele><time>2026-03-30T09:17:09Z</time></trkpt><trkpt lat="41.91308626507204" lon="1.5122479679481207"><ele>848.6666666666667</ele><time>2026-03-30T09:17:10Z</time></trkpt><trkpt lat="41.913198373096115" lon="1.5120004662081588"><ele>848.0</ele><time>2026-03-30T09:17:11Z</time></trkpt><trkpt lat="41.91331438650432" lon="1.5117611925158212"><ele>848.0</ele><time>2026-03-30T09:17:12Z</time></trkpt><trkpt lat="41.91343031091084" lon="1.5115289309826838"><ele>848.0</ele><time>2026-03-30T09:17:13Z</time></trkpt><trkpt lat="41.913540377206914" lon="1.5112953438943544"><ele>848.0</ele><time>2026-03-30T09:17:14Z</time></trkpt><trkpt lat="41.91364991961965" lon="1.5110609344471386"><ele>848.0</ele><time>2026-03-30T09:17:15Z</time></trkpt><trkpt lat="41.91376001236646" lon="1.51082761284008"><ele>848.0</ele><time>2026-03-30T09:17:16Z</time></trkpt><trkpt lat="41.91386094906405" lon="1.5105948939683318"><ele>848.0</ele><time>2026-03-30T09:17:17Z</time></trkpt><trkpt lat="41.91392421443173" lon="1.5103415135710372"><ele>849.6666666666667</ele><time>2026-03-30T09:17:18Z</time></trkpt><trkpt lat="41.9139491959513" lon="1.510079664902135"><ele>851.3333333333333</ele><time>2026-03-30T09:17:19Z</time></trkpt><trkpt lat="41.91393908998905" lon="1.50981319620315"><ele>853.0</ele><time>2026-03-30T09:17:20Z</time></trkpt><trkpt lat="41.91389612117994" lon="1.509557575079552"><ele>855.3333333333333</ele><time>2026-03-30T09:17:21Z</time></trkpt><trkpt lat="41.913860351128235" lon="1.5092826994383026"><ele>857.6666666666667</ele><time>2026-03-30T09:17:22Z</time></trkpt><trkpt lat="41.91380195398676" lon="1.5090122852388448"><ele>860.0</ele><time>2026-03-30T09:17:23Z</time></trkpt><trkpt lat="41.91376724727251" lon="1.5087428679902126"><ele>860.0</ele><time>2026-03-30T09:17:24Z</time></trkpt><trkpt lat="41.913747285184925" lon="1.508469008521027"><ele>860.0</ele><time>2026-03-30T09:17:25Z</time></trkpt><trkpt lat="41.9137523805014" lon="1.5081885788905518"><ele>860.0</ele><time>2026-03-30T09:17:26Z</time></trkpt><trkpt lat="41.9137825916619" lon="1.507907550687423"><ele>860.0</ele><time>2026-03-30T09:17:27Z</time></trkpt><trkpt lat="41.913839968024725" lon="1.5076399992700449"><ele>860.0</ele><time>2026-03-30T09:17:28Z</time></trkpt><trkpt lat="41.91391830929549" lon="1.5073869888046103"><ele>860.0</ele><time>2026-03-30T09:17:29Z</time></trkpt><trkpt lat="41.91400819046714" lon="1.5071436844338173"><ele>859.3333333333334</ele><time>2026-03-30T09:17:30Z</time></trkpt><trkpt lat="41.91414020786738" lon="1.5069358860386013"><ele>858.6666666666667</ele><time>2026-03-30T09:17:31Z</time></trkpt><trkpt lat="41.91427729523651" lon="1.5067306833673293"><ele>858.0</ele><time>2026-03-30T09:17:32Z</time></trkpt><trkpt lat="41.91443262939645" lon="1.506553657138312"><ele>858.6666666666667</ele><time>2026-03-30T09:17:33Z</time></trkpt><trkpt lat="41.91459534292667" lon="1.5063876100602946"><ele>859.3333333333334</ele><time>2026-03-30T09:17:34Z</time></trkpt><trkpt lat="41.9147560836023" lon="1.506217416581018"><ele>860.0</ele><time>2026-03-30T09:17:35Z</time></trkpt><trkpt lat="41.91492337203191" lon="1.5060556808403105"><ele>859.3333333333334</ele><time>2026-03-30T09:17:36Z</time></trkpt><trkpt lat="41.915096085336174" lon="1.5058826044778597"><ele>858.6666666666667</ele><time>2026-03-30T09:17:37Z</time></trkpt><trkpt lat="41.91526903121333" lon="1.505711263432063"><ele>858.0</ele><time>2026-03-30T09:17:38Z</time></trkpt><trkpt lat="41.91543839307267" lon="1.505550380633171"><ele>859.6666666666667</ele><time>2026-03-30T09:17:39Z</time></trkpt><trkpt lat="41.91560186489314" lon="1.505385085258654"><ele>861.3333333333334</ele><time>2026-03-30T09:17:40Z</time></trkpt><trkpt lat="41.91576134842907" lon="1.505214074105441"><ele>863.0</ele><time>2026-03-30T09:17:41Z</time></trkpt><trkpt lat="41.915915361481666" lon="1.5050262726098196"><ele>863.0</ele><time>2026-03-30T09:17:42Z</time></trkpt><trkpt lat="41.91606694651147" lon="1.5048069928281156"><ele>863.0</ele><time>2026-03-30T09:17:43Z</time></trkpt><trkpt lat="41.91620765713248" lon="1.5045741132556403"><ele>863.0</ele><time>2026-03-30T09:17:44Z</time></trkpt><trkpt lat="41.91634473838225" lon="1.5043416434069512"><ele>861.3333333333334</ele><time>2026-03-30T09:17:45Z</time></trkpt><trkpt lat="41.91648079912695" lon="1.5041127713661924"><ele>859.6666666666667</ele><time>2026-03-30T09:17:46Z</time></trkpt><trkpt lat="41.9166120794036" lon="1.5038810847528987"><ele>858.0</ele><time>2026-03-30T09:17:47Z</time></trkpt><trkpt lat="41.91673901428588" lon="1.503649883864765"><ele>856.3333333333333</ele><time>2026-03-30T09:17:48Z</time></trkpt><trkpt lat="41.91686709663365" lon="1.5034225714834144"><ele>854.6666666666666</ele><time>2026-03-30T09:17:49Z</time></trkpt><trkpt lat="41.91698967976522" lon="1.503196896925608"><ele>853.0</ele><time>2026-03-30T09:17:50Z</time></trkpt><trkpt lat="41.91711208315668" lon="1.5029746910415243"><ele>854.6666666666666</ele><time>2026-03-30T09:17:51Z</time></trkpt><trkpt lat="41.91724245853985" lon="1.502764250951693"><ele>856.3333333333333</ele><time>2026-03-30T09:17:52Z</time></trkpt><trkpt lat="41.91738136857022" lon="1.5025680006729085"><ele>858.0</ele><time>2026-03-30T09:17:53Z</time></trkpt><trkpt lat="41.91752630038025" lon="1.502372969393477"><ele>858.6666666666667</ele><time>2026-03-30T09:17:54Z</time></trkpt><trkpt lat="41.9176806452106" lon="1.5021870893066749"><ele>859.3333333333334</ele><time>2026-03-30T09:17:55Z</time></trkpt><trkpt lat="41.91783954989308" lon="1.5020059906277756"><ele>860.0</ele><time>2026-03-30T09:17:56Z</time></trkpt><trkpt lat="41.91799616819826" lon="1.5018135033809934"><ele>860.0</ele><time>2026-03-30T09:17:57Z</time></trkpt><trkpt lat="41.918148198194665" lon="1.5016300278831485"><ele>860.0</ele><time>2026-03-30T09:17:58Z</time></trkpt><trkpt lat="41.91829045603702" lon="1.5014599740603287"><ele>860.0</ele><time>2026-03-30T09:17:59Z</time></trkpt><trkpt lat="41.918416786694856" lon="1.5012837477805618"><ele>856.3333333333334</ele><time>2026-03-30T09:18:00Z</time></trkpt><trkpt lat="41.91851713124092" lon="1.5010641680398482"><ele>852.6666666666667</ele><time>2026-03-30T09:18:01Z</time></trkpt><trkpt lat="41.91857056529914" lon="1.5008039103997592"><ele>849.0</ele><time>2026-03-30T09:18:02Z</time></trkpt><trkpt lat="41.91859654643367" lon="1.5005339886493603"><ele>850.3333333333333</ele><time>2026-03-30T09:18:03Z</time></trkpt><trkpt lat="41.91862351918491" lon="1.5002718182388124"><ele>851.6666666666666</ele><time>2026-03-30T09:18:04Z</time></trkpt><trkpt lat="41.91870043799041" lon="1.500005128410176"><ele>853.0</ele><time>2026-03-30T09:18:05Z</time></trkpt><trkpt lat="41.91878455051497" lon="1.4998045129182815"><ele>853.0</ele><time>2026-03-30T09:18:06Z</time></trkpt><trkpt lat="41.918900792028815" lon="1.4996319112571792"><ele>853.0</ele><time>2026-03-30T09:18:07Z</time></trkpt><trkpt lat="41.9190265432613" lon="1.499473410235292"><ele>853.0</ele><time>2026-03-30T09:18:08Z</time></trkpt><trkpt lat="41.91918352519953" lon="1.499377179495281"><ele>852.6666666666666</ele><time>2026-03-30T09:18:09Z</time></trkpt><trkpt lat="41.91935261371743" lon="1.4993134254507148"><ele>852.3333333333333</ele><time>2026-03-30T09:18:10Z</time></trkpt><trkpt lat="41.919533120488005" lon="1.4992783463196881"><ele>852.0</ele><time>2026-03-30T09:18:11Z</time></trkpt><trkpt lat="41.919716099752904" lon="1.4992449112802333"><ele>852.0</ele><time>2026-03-30T09:18:12Z</time></trkpt><trkpt lat="41.91989686128195" lon="1.4991966682675109"><ele>852.0</ele><time>2026-03-30T09:18:13Z</time></trkpt><trkpt lat="41.9200752995467" lon="1.4991368590020173"><ele>852.0</ele><time>2026-03-30T09:18:14Z</time></trkpt><trkpt lat="41.92025212727254" lon="1.4990566878775213"><ele>851.6666666666667</ele><time>2026-03-30T09:18:15Z</time></trkpt><trkpt lat="41.920419978820746" lon="1.4989382999778729"><ele>851.3333333333334</ele><time>2026-03-30T09:18:16Z</time></trkpt><trkpt lat="41.920579401379335" lon="1.4987897860326997"><ele>851.0</ele><time>2026-03-30T09:18:17Z</time></trkpt><trkpt lat="41.92074400945306" lon="1.4986407874977627"><ele>851.0</ele><time>2026-03-30T09:18:18Z</time></trkpt><trkpt lat="41.920911366219435" lon="1.4984970376500397"><ele>851.0</ele><time>2026-03-30T09:18:19Z</time></trkpt><trkpt lat="41.92108066175361" lon="1.4983548454991533"><ele>851.0</ele><time>2026-03-30T09:18:20Z</time></trkpt><trkpt lat="41.921245408424866" lon="1.498228101613265"><ele>851.0</ele><time>2026-03-30T09:18:21Z</time></trkpt><trkpt lat="41.921412101363124" lon="1.4981194241401534"><ele>851.0</ele><time>2026-03-30T09:18:22Z</time></trkpt><trkpt lat="41.92159263700423" lon="1.4980369358641072"><ele>851.0</ele><time>2026-03-30T09:18:23Z</time></trkpt><trkpt lat="41.9217798356522" lon="1.4979817682992376"><ele>851.6666666666667</ele><time>2026-03-30T09:18:24Z</time></trkpt><trkpt lat="41.921965846923726" lon="1.4979463911935396"><ele>852.3333333333333</ele><time>2026-03-30T09:18:25Z</time></trkpt><trkpt lat="41.92215188423265" lon="1.4978983782789381"><ele>853.0</ele><time>2026-03-30T09:18:26Z</time></trkpt><trkpt lat="41.92234887949789" lon="1.4979099906096316"><ele>853.0</ele><time>2026-03-30T09:18:27Z</time></trkpt><trkpt lat="41.92254265801727" lon="1.4979183533696028"><ele>853.0</ele><time>2026-03-30T09:18:28Z</time></trkpt><trkpt lat="41.922737146137315" lon="1.497931032153867"><ele>853.0</ele><time>2026-03-30T09:18:29Z</time></trkpt><trkpt lat="41.92293585461515" lon="1.497938655319489"><ele>853.3333333333333</ele><time>2026-03-30T09:18:30Z</time></trkpt><trkpt lat="41.923133939854175" lon="1.4979342788169834"><ele>853.6666666666667</ele><time>2026-03-30T09:18:31Z</time></trkpt><trkpt lat="41.92333540761399" lon="1.497915240796224"><ele>854.0</ele><time>2026-03-30T09:18:32Z</time></trkpt><trkpt lat="41.92353301774395" lon="1.4978526728926107"><ele>854.3333333333334</ele><time>2026-03-30T09:18:33Z</time></trkpt><trkpt lat="41.923721908426245" lon="1.4977435231974472"><ele>854.6666666666667</ele><time>2026-03-30T09:18:34Z</time></trkpt><trkpt lat="41.9238937415046" lon="1.4975834458624457"><ele>855.0</ele><time>2026-03-30T09:18:35Z</time></trkpt><trkpt lat="41.9240587102097" lon="1.4973908630424906"><ele>854.5</ele><time>2026-03-30T09:18:36Z</time></trkpt><trkpt lat="41.92424053264348" lon="1.4971926548660903"><ele>854.0</ele><time>2026-03-30T09:18:37Z</time></trkpt><trkpt lat="41.924420961690714" lon="1.4970044389466681"><ele>853.0</ele><time>2026-03-30T09:18:38Z</time></trkpt><trkpt lat="41.92458917730671" lon="1.4968331502735144"><ele>852.0</ele><time>2026-03-30T09:18:39Z</time></trkpt><trkpt lat="41.924745646687136" lon="1.4966729376967203"><ele>851.0</ele><time>2026-03-30T09:18:40Z</time></trkpt><trkpt lat="41.92490954452853" lon="1.496503547764954"><ele>850.6666666666667</ele><time>2026-03-30T09:18:41Z</time></trkpt><trkpt lat="41.92507885216967" lon="1.4963212080278125"><ele>850.3333333333333</ele><time>2026-03-30T09:18:42Z</time></trkpt><trkpt lat="41.9252589900478" lon="1.49613003421667"><ele>850.0</ele><time>2026-03-30T09:18:43Z</time></trkpt><trkpt lat="41.92544465268238" lon="1.4959348368157253"><ele>847.0</ele><time>2026-03-30T09:18:44Z</time></trkpt><trkpt lat="41.925627461582316" lon="1.4957444558856803"><ele>844.0</ele><time>2026-03-30T09:18:45Z</time></trkpt><trkpt lat="41.92581387176881" lon="1.4955498028337508"><ele>842.0</ele><time>2026-03-30T09:18:46Z</time></trkpt><trkpt lat="41.92599352849232" lon="1.4953640278705844"><ele>840.0</ele><time>2026-03-30T09:18:47Z</time></trkpt><trkpt lat="41.92617200744548" lon="1.4951922394045483"><ele>838.0</ele><time>2026-03-30T09:18:48Z</time></trkpt><trkpt lat="41.92635131804791" lon="1.4950427017143202"><ele>838.0</ele><time>2026-03-30T09:18:49Z</time></trkpt><trkpt lat="41.926536603323605" lon="1.4949151409250132"><ele>838.0</ele><time>2026-03-30T09:18:50Z</time></trkpt><trkpt lat="41.92673978357507" lon="1.4948005154907467"><ele>838.0</ele><time>2026-03-30T09:18:51Z</time></trkpt><trkpt lat="41.926950993260775" lon="1.4947006623555033"><ele>837.5</ele><time>2026-03-30T09:18:52Z</time></trkpt><trkpt lat="41.92716980777294" lon="1.4946150474927733"><ele>837.0</ele><time>2026-03-30T09:18:53Z</time></trkpt><trkpt lat="41.92738775778475" lon="1.4945436471127993"><ele>836.0</ele><time>2026-03-30T09:18:54Z</time></trkpt><trkpt lat="41.92759964051046" lon="1.4944723771427924"><ele>835.0</ele><time>2026-03-30T09:18:55Z</time></trkpt><trkpt lat="41.92779791778067" lon="1.4943965752560784"><ele>834.0</ele><time>2026-03-30T09:18:56Z</time></trkpt><trkpt lat="41.92799645853704" lon="1.4943402315004735"><ele>834.0</ele><time>2026-03-30T09:18:57Z</time></trkpt><trkpt lat="41.92820017104165" lon="1.4943191813528416"><ele>834.0</ele><time>2026-03-30T09:18:58Z</time></trkpt><trkpt lat="41.92840654823582" lon="1.4943496141323445"><ele>834.0</ele><time>2026-03-30T09:18:59Z</time></trkpt><trkpt lat="41.928600496815974" lon="1.4944299525319993"><ele>832.6666666666667</ele><time>2026-03-30T09:19:00Z</time></trkpt><trkpt lat="41.92878235249013" lon="1.494547511512418"><ele>831.3333333333334</ele><time>2026-03-30T09:19:01Z</time></trkpt><trkpt lat="41.92895197835282" lon="1.4946965981119629"><ele>830.0</ele><time>2026-03-30T09:19:02Z</time></trkpt><trkpt lat="41.92911595106482" lon="1.494867861593881"><ele>831.6666666666667</ele><time>2026-03-30T09:19:03Z</time></trkpt><trkpt lat="41.92927575385734" lon="1.4950399140622213"><ele>833.3333333333333</ele><time>2026-03-30T09:19:04Z</time></trkpt><trkpt lat="41.929427276821336" lon="1.4951946597955843"><ele>835.0</ele><time>2026-03-30T09:19:05Z</time></trkpt><trkpt lat="41.92957450756213" lon="1.495340258946919"><ele>832.6666666666666</ele><time>2026-03-30T09:19:06Z</time></trkpt><trkpt lat="41.92972022891513" lon="1.4954831222063325"><ele>830.3333333333333</ele><time>2026-03-30T09:19:07Z</time></trkpt><trkpt lat="41.92988563300882" lon="1.4956195725460752"><ele>828.0</ele><time>2026-03-30T09:19:08Z</time></trkpt><trkpt lat="41.930075216556396" lon="1.4957249533886128"><ele>828.0</ele><time>2026-03-30T09:19:09Z</time></trkpt><trkpt lat="41.93027828952739" lon="1.495789818487307"><ele>828.0</ele><time>2026-03-30T09:19:10Z</time></trkpt><trkpt lat="41.93050206865546" lon="1.4958043605022"><ele>828.0</ele><time>2026-03-30T09:19:11Z</time></trkpt><trkpt lat="41.93073438594347" lon="1.4958260775850298"><ele>826.0</ele><time>2026-03-30T09:19:12Z</time></trkpt><trkpt lat="41.930971133608544" lon="1.4958502385176344"><ele>824.0</ele><time>2026-03-30T09:19:13Z</time></trkpt><trkpt lat="41.931210192359714" lon="1.4958761414735267"><ele>824.0</ele><time>2026-03-30T09:19:14Z</time></trkpt><trkpt lat="41.93144573575181" lon="1.495909838275234"><ele>824.0</ele><time>2026-03-30T09:19:15Z</time></trkpt><trkpt lat="41.931686405881095" lon="1.4959431103408438"><ele>823.0</ele><time>2026-03-30T09:19:16Z</time></trkpt><trkpt lat="41.93193066909229" lon="1.4959759329195692"><ele>822.0</ele><time>2026-03-30T09:19:17Z</time></trkpt><trkpt lat="41.93217356179057" lon="1.4960107578694557"><ele>822.0</ele><time>2026-03-30T09:19:18Z</time></trkpt><trkpt lat="41.93241885467546" lon="1.4960579250814046"><ele>822.0</ele><time>2026-03-30T09:19:19Z</time></trkpt><trkpt lat="41.93266417262136" lon="1.4961350989399622"><ele>821.5</ele><time>2026-03-30T09:19:20Z</time></trkpt><trkpt lat="41.93290341584636" lon="1.4962392096141208"><ele>821.0</ele><time>2026-03-30T09:19:21Z</time></trkpt><trkpt lat="41.93313903135177" lon="1.4963493135093417"><ele>822.5</ele><time>2026-03-30T09:19:22Z</time></trkpt><trkpt lat="41.93337259553239" lon="1.496447978368552"><ele>824.0</ele><time>2026-03-30T09:19:23Z</time></trkpt><trkpt lat="41.9336263785589" lon="1.4965426092015237"><ele>824.0</ele><time>2026-03-30T09:19:24Z</time></trkpt><trkpt lat="41.93389166245939" lon="1.4966423596813552"><ele>824.0</ele><time>2026-03-30T09:19:25Z</time></trkpt><trkpt lat="41.934151900963315" lon="1.4967466145801835"><ele>821.5</ele><time>2026-03-30T09:19:26Z</time></trkpt><trkpt lat="41.93440320655706" lon="1.4968472619967497"><ele>819.0</ele><time>2026-03-30T09:19:27Z</time></trkpt><trkpt lat="41.934642607744514" lon="1.4969459078018859"><ele>819.0</ele><time>2026-03-30T09:19:28Z</time></trkpt><trkpt lat="41.93487375282086" lon="1.4970414967552361"><ele>819.0</ele><time>2026-03-30T09:19:29Z</time></trkpt><trkpt lat="41.93509506105307" lon="1.4971318133433436"><ele>819.6666666666667</ele><time>2026-03-30T09:19:30Z</time></trkpt><trkpt lat="41.93530911395475" lon="1.497215096904267"><ele>820.3333333333334</ele><time>2026-03-30T09:19:31Z</time></trkpt><trkpt lat="41.93552895481083" lon="1.4972760622920631"><ele>821.0</ele><time>2026-03-30T09:19:32Z</time></trkpt><trkpt lat="41.93576067808769" lon="1.4973051411852487"><ele>822.5</ele><time>2026-03-30T09:19:33Z</time></trkpt><trkpt lat="41.935992091117434" lon="1.4973169097483687"><ele>824.0</ele><time>2026-03-30T09:19:34Z</time></trkpt><trkpt lat="41.93623065803891" lon="1.4973128798016393"><ele>824.0</ele><time>2026-03-30T09:19:35Z</time></trkpt><trkpt lat="41.93646953328248" lon="1.4973057081798593"><ele>824.0</ele><time>2026-03-30T09:19:36Z</time></trkpt><trkpt lat="41.93670649127453" lon="1.497303130008127"><ele>824.5</ele><time>2026-03-30T09:19:37Z</time></trkpt><trkpt lat="41.93694710638823" lon="1.4973054697867962"><ele>825.0</ele><time>2026-03-30T09:19:38Z</time></trkpt><trkpt lat="41.93718444428803" lon="1.4973019070096871"><ele>825.0</ele><time>2026-03-30T09:19:39Z</time></trkpt><trkpt lat="41.93742315823684" lon="1.4972839761554482"><ele>825.0</ele><time>2026-03-30T09:19:40Z</time></trkpt><trkpt lat="41.93767010537995" lon="1.4972487642613073"><ele>825.0</ele><time>2026-03-30T09:19:41Z</time></trkpt><trkpt lat="41.937900024746284" lon="1.4972050477082293"><ele>825.0</ele><time>2026-03-30T09:19:42Z</time></trkpt><trkpt lat="41.93812598112243" lon="1.497152067960984"><ele>824.5</ele><time>2026-03-30T09:19:43Z</time></trkpt><trkpt lat="41.938354350829115" lon="1.4970839892384604"><ele>824.0</ele><time>2026-03-30T09:19:44Z</time></trkpt><trkpt lat="41.93857742934242" lon="1.4969968728730065"><ele>824.0</ele><time>2026-03-30T09:19:45Z</time></trkpt><trkpt lat="41.93880100040664" lon="1.4968996288383098"><ele>824.0</ele><time>2026-03-30T09:19:46Z</time></trkpt><trkpt lat="41.9390311128748" lon="1.4967881253710311"><ele>822.0</ele><time>2026-03-30T09:19:47Z</time></trkpt><trkpt lat="41.93925883875513" lon="1.4966589787824258"><ele>820.0</ele><time>2026-03-30T09:19:48Z</time></trkpt><trkpt lat="41.93948129287143" lon="1.4965210950160348"><ele>820.0</ele><time>2026-03-30T09:19:49Z</time></trkpt><trkpt lat="41.939692486348186" lon="1.49638359854903"><ele>820.0</ele><time>2026-03-30T09:19:50Z</time></trkpt><trkpt lat="41.93989750942136" lon="1.4962481084448715"><ele>821.3333333333333</ele><time>2026-03-30T09:19:51Z</time></trkpt><trkpt lat="41.940092816423366" lon="1.4961235793367371"><ele>822.6666666666667</ele><time>2026-03-30T09:19:52Z</time></trkpt><trkpt lat="41.94028340691868" lon="1.496008776516306"><ele>824.0</ele><time>2026-03-30T09:19:53Z</time></trkpt><trkpt lat="41.940478516489264" lon="1.4958894492478403"><ele>824.0</ele><time>2026-03-30T09:19:54Z</time></trkpt><trkpt lat="41.94067270384722" lon="1.4957640107481371"><ele>824.0</ele><time>2026-03-30T09:19:55Z</time></trkpt><trkpt lat="41.9408728914971" lon="1.4956372395019417"><ele>824.0</ele><time>2026-03-30T09:19:56Z</time></trkpt><trkpt lat="41.9410726335644" lon="1.4955128690230344"><ele>824.0</ele><time>2026-03-30T09:19:57Z</time></trkpt><trkpt lat="41.94127086863613" lon="1.4953866195479817"><ele>824.0</ele><time>2026-03-30T09:19:58Z</time></trkpt><trkpt lat="41.941466336039284" lon="1.4952634411948036"><ele>824.0</ele><time>2026-03-30T09:19:59Z</time></trkpt><trkpt lat="41.94166179296635" lon="1.4951411785121365"><ele>824.6666666666667</ele><time>2026-03-30T09:20:00Z</time></trkpt><trkpt lat="41.941857836307044" lon="1.4950172549192218"><ele>825.3333333333333</ele><time>2026-03-30T09:20:01Z</time></trkpt><trkpt lat="41.94204782514436" lon="1.4948922736780377"><ele>826.0</ele><time>2026-03-30T09:20:02Z</time></trkpt><trkpt lat="41.94223445244756" lon="1.4947561332962596"><ele>826.0</ele><time>2026-03-30T09:20:03Z</time></trkpt><trkpt lat="41.94240688976233" lon="1.494594019152486"><ele>826.0</ele><time>2026-03-30T09:20:04Z</time></trkpt><trkpt lat="41.942568254088286" lon="1.494413000800585"><ele>826.0</ele><time>2026-03-30T09:20:05Z</time></trkpt><trkpt lat="41.94271969088152" lon="1.4942170216430617"><ele>825.6666666666666</ele><time>2026-03-30T09:20:06Z</time></trkpt><trkpt lat="41.942860288024434" lon="1.4940058258449451"><ele>825.3333333333333</ele><time>2026-03-30T09:20:07Z</time></trkpt><trkpt lat="41.943020896113566" lon="1.493817438034994"><ele>825.0</ele><time>2026-03-30T09:20:08Z</time></trkpt><trkpt lat="41.94317845814926" lon="1.4936075363345813"><ele>824.0</ele><time>2026-03-30T09:20:09Z</time></trkpt><trkpt lat="41.94333566528166" lon="1.493387996464736"><ele>823.0</ele><time>2026-03-30T09:20:10Z</time></trkpt><trkpt lat="41.943400073340555" lon="1.4930421190920387"><ele>820.0</ele><time>2026-03-30T09:20:11Z</time></trkpt><trkpt lat="41.943683449077795" lon="1.492535771285748"><ele>820.0</ele><time>2026-03-30T09:20:13Z</time></trkpt><trkpt lat="41.94381529666973" lon="1.4922858029947015"><ele>820.0</ele><time>2026-03-30T09:20:14Z</time></trkpt><trkpt lat="41.94394624103589" lon="1.492049147040182"><ele>820.0</ele><time>2026-03-30T09:20:15Z</time></trkpt><trkpt lat="41.944076608205286" lon="1.4918247635422544"><ele>820.0</ele><time>2026-03-30T09:20:16Z</time></trkpt><trkpt lat="41.9442081662275" lon="1.4916043682692037"><ele>820.0</ele><time>2026-03-30T09:20:17Z</time></trkpt><trkpt lat="41.94434510411044" lon="1.4913885947245604"><ele>820.0</ele><time>2026-03-30T09:20:18Z</time></trkpt><trkpt lat="41.944484323689885" lon="1.491192022494333"><ele>820.3333333333333</ele><time>2026-03-30T09:20:19Z</time></trkpt><trkpt lat="41.944621945502526" lon="1.4910096168740998"><ele>820.6666666666667</ele><time>2026-03-30T09:20:20Z</time></trkpt><trkpt lat="41.94475517846526" lon="1.490833033681041"><ele>821.0</ele><time>2026-03-30T09:20:21Z</time></trkpt><trkpt lat="41.94488643934231" lon="1.490667835154955"><ele>821.0</ele><time>2026-03-30T09:20:22Z</time></trkpt><trkpt lat="41.94501295597389" lon="1.4905090577065994"><ele>821.0</ele><time>2026-03-30T09:20:23Z</time></trkpt><trkpt lat="41.945055480153464" lon="1.4904178288498802"><ele>821.0</ele><time>2026-03-30T09:20:24Z</time></trkpt><trkpt lat="41.94514699335437" lon="1.4902975387659148"><ele>821.0</ele><time>2026-03-30T09:20:25Z</time></trkpt><trkpt lat="41.945234378405715" lon="1.4901858782727644"><ele>820.8333333333334</ele><time>2026-03-30T09:20:26Z</time></trkpt><trkpt lat="41.945314720263916" lon="1.490076532554017"><ele>820.6666666666667</ele><time>2026-03-30T09:20:27Z</time></trkpt><trkpt lat="41.94536989229841" lon="1.4899917863442331"><ele>820.5</ele><time>2026-03-30T09:20:28Z</time></trkpt><trkpt lat="41.945411699613885" lon="1.4899235468887204"><ele>820.3333333333333</ele><time>2026-03-30T09:20:29Z</time></trkpt><trkpt lat="41.94545938862832" lon="1.489840623947376"><ele>820.1666666666666</ele><time>2026-03-30T09:20:31Z</time></trkpt><trkpt lat="41.94543825140249" lon="1.4897449893444237"><ele>820.0</ele><time>2026-03-30T09:20:34Z</time></trkpt><trkpt lat="41.94538355258242" lon="1.489702125538443"><ele>820.0</ele><time>2026-03-30T09:20:35Z</time></trkpt><trkpt lat="41.9453036406132" lon="1.4896557370233503"><ele>820.0</ele><time>2026-03-30T09:20:36Z</time></trkpt><trkpt lat="41.94522973859607" lon="1.489599797738401"><ele>820.0</ele><time>2026-03-30T09:20:37Z</time></trkpt><trkpt lat="41.94514715205468" lon="1.489533086311334"><ele>820.0</ele><time>2026-03-30T09:20:38Z</time></trkpt><trkpt lat="41.945011950641515" lon="1.4894148648641987"><ele>820.0</ele><time>2026-03-30T09:20:39Z</time></trkpt><trkpt lat="41.944848451170046" lon="1.4892600430928666"><ele>819.6666666666666</ele><time>2026-03-30T09:20:40Z</time></trkpt><trkpt lat="41.94471030442367" lon="1.4891310150014792"><ele>819.3333333333333</ele><time>2026-03-30T09:20:41Z</time></trkpt><trkpt lat="41.94457897183429" lon="1.4889990049976807"><ele>819.0</ele><time>2026-03-30T09:20:42Z</time></trkpt><trkpt lat="41.944439863907405" lon="1.488834188189974"><ele>819.0</ele><time>2026-03-30T09:20:43Z</time></trkpt><trkpt lat="41.94429983003882" lon="1.488642364811114"><ele>819.0</ele><time>2026-03-30T09:20:44Z</time></trkpt><trkpt lat="41.94417581025989" lon="1.4884504247473243"><ele>819.0</ele><time>2026-03-30T09:20:45Z</time></trkpt><trkpt lat="41.944064826920105" lon="1.4882672757621795"><ele>819.0</ele><time>2026-03-30T09:20:46Z</time></trkpt><trkpt lat="41.94395329809154" lon="1.4880867820798986"><ele>819.0</ele><time>2026-03-30T09:20:47Z</time></trkpt><trkpt lat="41.94384754428703" lon="1.4878945531484151"><ele>819.0</ele><time>2026-03-30T09:20:48Z</time></trkpt><trkpt lat="41.94373518354076" lon="1.4877056847317651"><ele>819.0</ele><time>2026-03-30T09:20:49Z</time></trkpt><trkpt lat="41.94362058441975" lon="1.4875128659927541"><ele>819.0</ele><time>2026-03-30T09:20:50Z</time></trkpt><trkpt lat="41.943505690276986" lon="1.4873175418424094"><ele>819.0</ele><time>2026-03-30T09:20:51Z</time></trkpt><trkpt lat="41.94338834852494" lon="1.4871191036136078"><ele>817.3333333333333</ele><time>2026-03-30T09:20:52Z</time></trkpt><trkpt lat="41.94326288288398" lon="1.4869156502517402"><ele>815.6666666666666</ele><time>2026-03-30T09:20:53Z</time></trkpt><trkpt lat="41.94313326023259" lon="1.4866977273269688"><ele>814.0</ele><time>2026-03-30T09:20:54Z</time></trkpt><trkpt lat="41.94300028010332" lon="1.4864646142017257"><ele>814.6666666666666</ele><time>2026-03-30T09:20:55Z</time></trkpt><trkpt lat="41.94286793479627" lon="1.486238192677165"><ele>815.3333333333333</ele><time>2026-03-30T09:20:56Z</time></trkpt><trkpt lat="41.94272985071101" lon="1.4860078987142693"><ele>816.0</ele><time>2026-03-30T09:20:57Z</time></trkpt><trkpt lat="41.942590826442974" lon="1.4857737981781147"><ele>815.0</ele><time>2026-03-30T09:20:58Z</time></trkpt><trkpt lat="41.94245087780585" lon="1.4855396242741383"><ele>814.0</ele><time>2026-03-30T09:20:59Z</time></trkpt><trkpt lat="41.94230944041092" lon="1.4853039286650254"><ele>813.0</ele><time>2026-03-30T09:21:00Z</time></trkpt><trkpt lat="41.94216618267216" lon="1.485065410663295"><ele>813.0</ele><time>2026-03-30T09:21:01Z</time></trkpt><trkpt lat="41.942022756935906" lon="1.4848255632493574"><ele>813.0</ele><time>2026-03-30T09:21:02Z</time></trkpt><trkpt lat="41.9418851244855" lon="1.484583737265273"><ele>813.0</ele><time>2026-03-30T09:21:03Z</time></trkpt><trkpt lat="41.9417450724161" lon="1.4843485071138727"><ele>813.0</ele><time>2026-03-30T09:21:04Z</time></trkpt><trkpt lat="41.94160388305368" lon="1.4841188988676965"><ele>813.0</ele><time>2026-03-30T09:21:05Z</time></trkpt><trkpt lat="41.94146657039025" lon="1.483886082358518"><ele>814.0</ele><time>2026-03-30T09:21:06Z</time></trkpt><trkpt lat="41.94132858110409" lon="1.4836510361182362"><ele>815.0</ele><time>2026-03-30T09:21:07Z</time></trkpt><trkpt lat="41.94118808942383" lon="1.4834205098819615"><ele>816.0</ele><time>2026-03-30T09:21:08Z</time></trkpt><trkpt lat="41.94104470917161" lon="1.4831963241815849"><ele>816.0</ele><time>2026-03-30T09:21:09Z</time></trkpt><trkpt lat="41.9408991629103" lon="1.4829788032849232"><ele>816.0</ele><time>2026-03-30T09:21:10Z</time></trkpt><trkpt lat="41.94074182664598" lon="1.4827850815181463"><ele>816.0</ele><time>2026-03-30T09:21:11Z</time></trkpt><trkpt lat="41.94056822685386" lon="1.4826045729123734"><ele>816.3333333333333</ele><time>2026-03-30T09:21:12Z</time></trkpt><trkpt lat="41.940385882198576" lon="1.4824337517193138"><ele>816.6666666666666</ele><time>2026-03-30T09:21:13Z</time></trkpt><trkpt lat="41.94020046611822" lon="1.4822667994946104"><ele>817.0</ele><time>2026-03-30T09:21:14Z</time></trkpt><trkpt lat="41.940012832260784" lon="1.4821029218543875"><ele>815.5</ele><time>2026-03-30T09:21:15Z</time></trkpt><trkpt lat="41.93981902942068" lon="1.4819315008440732"><ele>814.0</ele><time>2026-03-30T09:21:16Z</time></trkpt><trkpt lat="41.93961999029836" lon="1.4817460754411436"><ele>814.0</ele><time>2026-03-30T09:21:17Z</time></trkpt><trkpt lat="41.939425374887804" lon="1.4815613652639763"><ele>814.0</ele><time>2026-03-30T09:21:18Z</time></trkpt><trkpt lat="41.93922172118674" lon="1.4813840900872315"><ele>815.0</ele><time>2026-03-30T09:21:19Z</time></trkpt><trkpt lat="41.93901410880216" lon="1.4812018437439507"><ele>816.0</ele><time>2026-03-30T09:21:20Z</time></trkpt><trkpt lat="41.93881166485128" lon="1.4810208807860987"><ele>816.0</ele><time>2026-03-30T09:21:21Z</time></trkpt><trkpt lat="41.938608646253094" lon="1.4808377717735446"><ele>816.0</ele><time>2026-03-30T09:21:22Z</time></trkpt><trkpt lat="41.938408888111276" lon="1.4806504271309529"><ele>818.5</ele><time>2026-03-30T09:21:23Z</time></trkpt><trkpt lat="41.93822227770559" lon="1.480466739953282"><ele>821.0</ele><time>2026-03-30T09:21:24Z</time></trkpt><trkpt lat="41.938053970277956" lon="1.480251081681598"><ele>822.5</ele><time>2026-03-30T09:21:25Z</time></trkpt><trkpt lat="41.937882990924294" lon="1.4800221870519665"><ele>824.0</ele><time>2026-03-30T09:21:26Z</time></trkpt><trkpt lat="41.9377304560513" lon="1.479778252946214"><ele>826.5</ele><time>2026-03-30T09:21:27Z</time></trkpt><trkpt lat="41.93758692892257" lon="1.4795228828084093"><ele>829.0</ele><time>2026-03-30T09:21:28Z</time></trkpt><trkpt lat="41.937447968774684" lon="1.4792560459076838"><ele>825.0</ele><time>2026-03-30T09:21:29Z</time></trkpt><trkpt lat="41.93731111663456" lon="1.478985771648631"><ele>821.0</ele><time>2026-03-30T09:21:30Z</time></trkpt><trkpt lat="41.93717408176053" lon="1.4787164198881522"><ele>821.0</ele><time>2026-03-30T09:21:31Z</time></trkpt><trkpt lat="41.93703892100074" lon="1.4784511851260127"><ele>821.0</ele><time>2026-03-30T09:21:32Z</time></trkpt><trkpt lat="41.93690300651314" lon="1.4781852955029282"><ele>819.0</ele><time>2026-03-30T09:21:33Z</time></trkpt><trkpt lat="41.93676724821935" lon="1.4779250074723531"><ele>817.0</ele><time>2026-03-30T09:21:34Z</time></trkpt><trkpt lat="41.93661461561572" lon="1.4776831623664122"><ele>814.0</ele><time>2026-03-30T09:21:35Z</time></trkpt><trkpt lat="41.93646709097573" lon="1.4774351800675956"><ele>811.0</ele><time>2026-03-30T09:21:36Z</time></trkpt><trkpt lat="41.93629955866579" lon="1.4771961060948098"><ele>811.0</ele><time>2026-03-30T09:21:37Z</time></trkpt><trkpt lat="41.93610608482105" lon="1.4769683838199683"><ele>811.0</ele><time>2026-03-30T09:21:38Z</time></trkpt><trkpt lat="41.93589341788062" lon="1.4767554122111104"><ele>810.5</ele><time>2026-03-30T09:21:39Z</time></trkpt><trkpt lat="41.93566577106213" lon="1.4765606860679081"><ele>810.0</ele><time>2026-03-30T09:21:40Z</time></trkpt><trkpt lat="41.93544863565157" lon="1.476349054865256"><ele>812.5</ele><time>2026-03-30T09:21:41Z</time></trkpt><trkpt lat="41.93523502063209" lon="1.4761571878703017"><ele>815.0</ele><time>2026-03-30T09:21:42Z</time></trkpt><trkpt lat="41.93502978635925" lon="1.4759699129096813"><ele>815.5</ele><time>2026-03-30T09:21:43Z</time></trkpt><trkpt lat="41.934836792831646" lon="1.4757733739078105"><ele>816.0</ele><time>2026-03-30T09:21:44Z</time></trkpt><trkpt lat="41.93465659920972" lon="1.4755578271481398"><ele>819.5</ele><time>2026-03-30T09:21:45Z</time></trkpt><trkpt lat="41.93449266451118" lon="1.475330336924739"><ele>823.0</ele><time>2026-03-30T09:21:46Z</time></trkpt><trkpt lat="41.93434343664128" lon="1.4750912118419863"><ele>819.0</ele><time>2026-03-30T09:21:47Z</time></trkpt><trkpt lat="41.93421142189007" lon="1.4748369801476753"><ele>815.0</ele><time>2026-03-30T09:21:48Z</time></trkpt><trkpt lat="41.93408654473972" lon="1.474560842981809"><ele>813.5</ele><time>2026-03-30T09:21:49Z</time></trkpt><trkpt lat="41.93397087279234" lon="1.474267861485748"><ele>812.0</ele><time>2026-03-30T09:21:50Z</time></trkpt><trkpt lat="41.93385950281403" lon="1.4739696515445218"><ele>814.5</ele><time>2026-03-30T09:21:51Z</time></trkpt><trkpt lat="41.93374954297754" lon="1.4736721704270457"><ele>817.0</ele><time>2026-03-30T09:21:52Z</time></trkpt><trkpt lat="41.933621052501174" lon="1.4733754938436767"><ele>817.0</ele><time>2026-03-30T09:21:53Z</time></trkpt><trkpt lat="41.93349410624614" lon="1.4730726422640792"><ele>817.0</ele><time>2026-03-30T09:21:54Z</time></trkpt><trkpt lat="41.93334624243217" lon="1.4727843994694918"><ele>813.0</ele><time>2026-03-30T09:21:55Z</time></trkpt><trkpt lat="41.9331797885057" lon="1.4725227138436228"><ele>809.0</ele><time>2026-03-30T09:21:56Z</time></trkpt><trkpt lat="41.93299766136034" lon="1.4722748629267104"><ele>809.5</ele><time>2026-03-30T09:21:57Z</time></trkpt><trkpt lat="41.93280573235094" lon="1.4720478088737994"><ele>810.0</ele><time>2026-03-30T09:21:58Z</time></trkpt><trkpt lat="41.932620919988786" lon="1.4718118053161853"><ele>810.5</ele><time>2026-03-30T09:21:59Z</time></trkpt><trkpt lat="41.932425893128155" lon="1.4715957398283546"><ele>811.0</ele><time>2026-03-30T09:22:00Z</time></trkpt><trkpt lat="41.93223131137382" lon="1.471387194282518"><ele>815.5</ele><time>2026-03-30T09:22:01Z</time></trkpt><trkpt lat="41.93203602713622" lon="1.471184118594328"><ele>820.0</ele><time>2026-03-30T09:22:02Z</time></trkpt><trkpt lat="41.93183082834927" lon="1.4710002025013384"><ele>816.5</ele><time>2026-03-30T09:22:03Z</time></trkpt><trkpt lat="41.93162805227241" lon="1.4708102744517066"><ele>813.0</ele><time>2026-03-30T09:22:04Z</time></trkpt><trkpt lat="41.93142950296343" lon="1.470594358247945"><ele>813.0</ele><time>2026-03-30T09:22:05Z</time></trkpt><trkpt lat="41.93121992662353" lon="1.470392900323319"><ele>813.0</ele><time>2026-03-30T09:22:06Z</time></trkpt><trkpt lat="41.93100976106252" lon="1.4701930382128239"><ele>810.0</ele><time>2026-03-30T09:22:07Z</time></trkpt><trkpt lat="41.93079140693542" lon="1.4699860783504555"><ele>807.0</ele><time>2026-03-30T09:22:08Z</time></trkpt><trkpt lat="41.93056809585547" lon="1.469785212482489"><ele>807.0</ele><time>2026-03-30T09:22:09Z</time></trkpt><trkpt lat="41.93033507345583" lon="1.469612178531565"><ele>807.0</ele><time>2026-03-30T09:22:10Z</time></trkpt><trkpt lat="41.93010616300407" lon="1.4694303138431137"><ele>807.0</ele><time>2026-03-30T09:22:11Z</time></trkpt><trkpt lat="41.929887750903156" lon="1.4692351566140949"><ele>807.0</ele><time>2026-03-30T09:22:12Z</time></trkpt><trkpt lat="41.92966204797571" lon="1.4690691106488378"><ele>807.0</ele><time>2026-03-30T09:22:13Z</time></trkpt><trkpt lat="41.929434772776084" lon="1.4689142962744526"><ele>807.0</ele><time>2026-03-30T09:22:14Z</time></trkpt><trkpt lat="41.92921296080335" lon="1.4687653959702396"><ele>809.0</ele><time>2026-03-30T09:22:15Z</time></trkpt><trkpt lat="41.92898660047504" lon="1.4686121156878018"><ele>811.0</ele><time>2026-03-30T09:22:16Z</time></trkpt><trkpt lat="41.92876071091008" lon="1.4684578293304533"><ele>811.0</ele><time>2026-03-30T09:22:17Z</time></trkpt><trkpt lat="41.92853910197857" lon="1.4683044948443844"><ele>811.0</ele><time>2026-03-30T09:22:18Z</time></trkpt><trkpt lat="41.928324628721484" lon="1.4681492233344866"><ele>813.0</ele><time>2026-03-30T09:22:19Z</time></trkpt><trkpt lat="41.92811497489337" lon="1.4679923263046135"><ele>815.0</ele><time>2026-03-30T09:22:20Z</time></trkpt><trkpt lat="41.92791276457626" lon="1.467828162932216"><ele>817.0</ele><time>2026-03-30T09:22:21Z</time></trkpt><trkpt lat="41.92771498282378" lon="1.4676570204441848"><ele>819.0</ele><time>2026-03-30T09:22:22Z</time></trkpt><trkpt lat="41.92751760914169" lon="1.4674833794186746"><ele>819.0</ele><time>2026-03-30T09:22:23Z</time></trkpt><trkpt lat="41.92731920996909" lon="1.4673120626943175"><ele>819.0</ele><time>2026-03-30T09:22:24Z</time></trkpt><trkpt lat="41.927119496259806" lon="1.4671405455550472"><ele>819.0</ele><time>2026-03-30T09:22:25Z</time></trkpt><trkpt lat="41.92691818443527" lon="1.4669676558375229"><ele>819.0</ele><time>2026-03-30T09:22:26Z</time></trkpt><trkpt lat="41.926711386525696" lon="1.4667900500850575"><ele>819.0</ele><time>2026-03-30T09:22:27Z</time></trkpt><trkpt lat="41.926506557216655" lon="1.4666141301361744"><ele>819.0</ele><time>2026-03-30T09:22:28Z</time></trkpt><trkpt lat="41.926306938973006" lon="1.4664426857702013"><ele>819.0</ele><time>2026-03-30T09:22:29Z</time></trkpt><trkpt lat="41.926094183625224" lon="1.4663084495157035"><ele>819.0</ele><time>2026-03-30T09:22:30Z</time></trkpt><trkpt lat="41.9258939897153" lon="1.4661365389608092"><ele>822.0</ele><time>2026-03-30T09:22:31Z</time></trkpt><trkpt lat="41.925693844259904" lon="1.4659658080313336"><ele>825.0</ele><time>2026-03-30T09:22:32Z</time></trkpt><trkpt lat="41.92548901338947" lon="1.4657971676657604"><ele>825.0</ele><time>2026-03-30T09:22:33Z</time></trkpt><trkpt lat="41.92529019676267" lon="1.4656317740018834"><ele>825.0</ele><time>2026-03-30T09:22:34Z</time></trkpt><trkpt lat="41.925095807145304" lon="1.4654570083443827"><ele>825.0</ele><time>2026-03-30T09:22:35Z</time></trkpt><trkpt lat="41.924912723713575" lon="1.4652728396192638"><ele>825.0</ele><time>2026-03-30T09:22:36Z</time></trkpt><trkpt lat="41.92473155054756" lon="1.4650788925130127"><ele>825.0</ele><time>2026-03-30T09:22:37Z</time></trkpt><trkpt lat="41.92455079760009" lon="1.4648863814903776"><ele>825.0</ele><time>2026-03-30T09:22:38Z</time></trkpt><trkpt lat="41.92437337434463" lon="1.4646815236355322"><ele>822.5</ele><time>2026-03-30T09:22:39Z</time></trkpt><trkpt lat="41.924196799154736" lon="1.4644619668099754"><ele>820.0</ele><time>2026-03-30T09:22:40Z</time></trkpt><trkpt lat="41.92401887473512" lon="1.4642356688051743"><ele>820.0</ele><time>2026-03-30T09:22:41Z</time></trkpt><trkpt lat="41.92384188582533" lon="1.4639926078711825"><ele>820.0</ele><time>2026-03-30T09:22:42Z</time></trkpt><trkpt lat="41.92366539740903" lon="1.4637506095734711"><ele>820.5</ele><time>2026-03-30T09:22:43Z</time></trkpt><trkpt lat="41.923492103800854" lon="1.463509827665746"><ele>821.0</ele><time>2026-03-30T09:22:44Z</time></trkpt><trkpt lat="41.92332447981527" lon="1.4632786309621844"><ele>822.0</ele><time>2026-03-30T09:22:45Z</time></trkpt><trkpt lat="41.923158652308956" lon="1.4630520829028508"><ele>823.0</ele><time>2026-03-30T09:22:46Z</time></trkpt><trkpt lat="41.92299464244903" lon="1.462823780191166"><ele>824.0</ele><time>2026-03-30T09:22:47Z</time></trkpt><trkpt lat="41.92284110940288" lon="1.4626033136598835"><ele>825.0</ele><time>2026-03-30T09:22:48Z</time></trkpt><trkpt lat="41.92269879963342" lon="1.4623992864794553"><ele>826.0</ele><time>2026-03-30T09:22:49Z</time></trkpt><trkpt lat="41.92256057373311" lon="1.46218818520095"><ele>827.6666666666666</ele><time>2026-03-30T09:22:50Z</time></trkpt><trkpt lat="41.92242590160799" lon="1.4619831124811238"><ele>829.3333333333333</ele><time>2026-03-30T09:22:51Z</time></trkpt><trkpt lat="41.922286608400604" lon="1.4617755907595722"><ele>831.0</ele><time>2026-03-30T09:22:52Z</time></trkpt><trkpt lat="41.922143002372415" lon="1.461555033964402"><ele>831.0</ele><time>2026-03-30T09:22:53Z</time></trkpt><trkpt lat="41.92200916349878" lon="1.4613239599289536"><ele>831.0</ele><time>2026-03-30T09:22:54Z</time></trkpt><trkpt lat="41.921904275428275" lon="1.4611164780643553"><ele>831.0</ele><time>2026-03-30T09:22:55Z</time></trkpt><trkpt lat="41.92181513848574" lon="1.460932742420064"><ele>831.0</ele><time>2026-03-30T09:22:56Z</time></trkpt><trkpt lat="41.92173959250156" lon="1.4607871548183582"><ele>831.0</ele><time>2026-03-30T09:22:57Z</time></trkpt><trkpt lat="41.92169487927566" lon="1.460702544910203"><ele>831.0</ele><time>2026-03-30T09:22:58Z</time></trkpt><trkpt lat="41.921655122397304" lon="1.4606366825502144"><ele>831.0</ele><time>2026-03-30T09:23:00Z</time></trkpt><trkpt lat="41.92156393950549" lon="1.4606013997819058"><ele>831.0</ele><time>2026-03-30T09:23:02Z</time></trkpt><trkpt lat="41.92145069751899" lon="1.4606925714500567"><ele>831.0</ele><time>2026-03-30T09:23:04Z</time></trkpt><trkpt lat="41.92138844678677" lon="1.4607499551218748"><ele>831.0</ele><time>2026-03-30T09:23:05Z</time></trkpt><trkpt lat="41.921317132267774" lon="1.460809666910067"><ele>831.0</ele><time>2026-03-30T09:23:06Z</time></trkpt><trkpt lat="41.92123852724625" lon="1.4608786047727342"><ele>831.0</ele><time>2026-03-30T09:23:07Z</time></trkpt><trkpt lat="41.921165402258474" lon="1.4609736590528033"><ele>831.0</ele><time>2026-03-30T09:23:08Z</time></trkpt><trkpt lat="41.92110766979567" lon="1.4611021712488528"><ele>831.0</ele><time>2026-03-30T09:23:09Z</time></trkpt><trkpt lat="41.921083016337704" lon="1.461232793187315"><ele>831.0</ele><time>2026-03-30T09:23:10Z</time></trkpt><trkpt lat="41.92108337156217" lon="1.461340557020044"><ele>831.0</ele><time>2026-03-30T09:23:11Z</time></trkpt><trkpt lat="41.92102423548593" lon="1.461454562807294"><ele>831.0</ele><time>2026-03-30T09:23:13Z</time></trkpt><trkpt lat="41.92091451834022" lon="1.4614707885745206"><ele>831.0</ele><time>2026-03-30T09:23:15Z</time></trkpt><trkpt lat="41.92071793552775" lon="1.4614840444565742"><ele>831.1999999999999</ele><time>2026-03-30T09:23:17Z</time></trkpt><trkpt lat="41.920613262907274" lon="1.4614965313674215"><ele>831.4</ele><time>2026-03-30T09:23:18Z</time></trkpt><trkpt lat="41.920508805067335" lon="1.4615055878152279"><ele>831.6</ele><time>2026-03-30T09:23:19Z</time></trkpt><trkpt lat="41.92040749331698" lon="1.4615109762249372"><ele>831.8</ele><time>2026-03-30T09:23:20Z</time></trkpt><trkpt lat="41.920306358008915" lon="1.4615169977100662"><ele>832.0</ele><time>2026-03-30T09:23:21Z</time></trkpt><trkpt lat="41.9201988453402" lon="1.4615237967121553"><ele>832.0</ele><time>2026-03-30T09:23:22Z</time></trkpt><trkpt lat="41.92008908876444" lon="1.461525955393864"><ele>832.0</ele><time>2026-03-30T09:23:23Z</time></trkpt><trkpt lat="41.91998478354159" lon="1.4615322300774032"><ele>832.0</ele><time>2026-03-30T09:23:24Z</time></trkpt><trkpt lat="41.91987729877338" lon="1.4615234605334748"><ele>832.0</ele><time>2026-03-30T09:23:25Z</time></trkpt><trkpt lat="41.919771302126144" lon="1.4614919279600214"><ele>832.0</ele><time>2026-03-30T09:23:26Z</time></trkpt><trkpt lat="41.91966692363065" lon="1.4614479826944689"><ele>832.0</ele><time>2026-03-30T09:23:27Z</time></trkpt><trkpt lat="41.919563536610255" lon="1.461380662704833"><ele>832.0</ele><time>2026-03-30T09:23:28Z</time></trkpt><trkpt lat="41.919465192893604" lon="1.461293956951087"><ele>832.0</ele><time>2026-03-30T09:23:29Z</time></trkpt><trkpt lat="41.91936460606581" lon="1.4612032888461433"><ele>832.0</ele><time>2026-03-30T09:23:30Z</time></trkpt><trkpt lat="41.91925490797278" lon="1.4611119604441039"><ele>832.5</ele><time>2026-03-30T09:23:31Z</time></trkpt><trkpt lat="41.919135948232615" lon="1.461024060801195"><ele>833.0</ele><time>2026-03-30T09:23:32Z</time></trkpt><trkpt lat="41.91899587111332" lon="1.4609508104139464"><ele>833.5</ele><time>2026-03-30T09:23:33Z</time></trkpt><trkpt lat="41.91884081512832" lon="1.4609010637511528"><ele>834.0</ele><time>2026-03-30T09:23:34Z</time></trkpt><trkpt lat="41.918684490359496" lon="1.4608216778078178"><ele>834.0</ele><time>2026-03-30T09:23:35Z</time></trkpt><trkpt lat="41.918521091656324" lon="1.4607778386771677"><ele>834.0</ele><time>2026-03-30T09:23:36Z</time></trkpt><trkpt lat="41.91835547806693" lon="1.460735499053697"><ele>834.0</ele><time>2026-03-30T09:23:37Z</time></trkpt><trkpt lat="41.91818661527872" lon="1.4606934046868068"><ele>830.3333333333333</ele><time>2026-03-30T09:23:38Z</time></trkpt><trkpt lat="41.91801813812664" lon="1.460651406451105"><ele>826.6666666666666</ele><time>2026-03-30T09:23:39Z</time></trkpt><trkpt lat="41.91784390463542" lon="1.4606136196228305"><ele>823.0</ele><time>2026-03-30T09:23:40Z</time></trkpt><trkpt lat="41.91766821362278" lon="1.4605947399487729"><ele>821.6666666666666</ele><time>2026-03-30T09:23:41Z</time></trkpt><trkpt lat="41.91749680815515" lon="1.4605225761651417"><ele>820.3333333333333</ele><time>2026-03-30T09:23:42Z</time></trkpt><trkpt lat="41.917315106862304" lon="1.460474720521813"><ele>819.0</ele><time>2026-03-30T09:23:43Z</time></trkpt><trkpt lat="41.917143277065136" lon="1.4604294647913394"><ele>819.0</ele><time>2026-03-30T09:23:44Z</time></trkpt><trkpt lat="41.91698968753104" lon="1.4603922176225468"><ele>819.0</ele><time>2026-03-30T09:23:45Z</time></trkpt><trkpt lat="41.91684558182241" lon="1.460349385997271"><ele>819.0</ele><time>2026-03-30T09:23:46Z</time></trkpt><trkpt lat="41.91671674563691" lon="1.4602748372546421"><ele>819.0</ele><time>2026-03-30T09:23:47Z</time></trkpt><trkpt lat="41.9166203947263" lon="1.4601372619491884"><ele>818.0</ele><time>2026-03-30T09:23:48Z</time></trkpt><trkpt lat="41.916535029296085" lon="1.4599532037073597"><ele>817.0</ele><time>2026-03-30T09:23:49Z</time></trkpt><trkpt lat="41.91647973671068" lon="1.4597605163470646"><ele>816.0</ele><time>2026-03-30T09:23:50Z</time></trkpt><trkpt lat="41.916425300648015" lon="1.459581067307182"><ele>815.0</ele><time>2026-03-30T09:23:51Z</time></trkpt><trkpt lat="41.916375276209564" lon="1.459414251459722"><ele>814.0</ele><time>2026-03-30T09:23:52Z</time></trkpt><trkpt lat="41.91630858957607" lon="1.4592834012168117"><ele>813.0</ele><time>2026-03-30T09:23:53Z</time></trkpt><trkpt lat="41.9162375656415" lon="1.4591883323479478"><ele>812.0</ele><time>2026-03-30T09:23:54Z</time></trkpt><trkpt lat="41.916144990826474" lon="1.4591693887437895"><ele>811.0</ele><time>2026-03-30T09:23:55Z</time></trkpt><trkpt lat="41.91605838499929" lon="1.4592295196413594"><ele>811.0</ele><time>2026-03-30T09:23:56Z</time></trkpt><trkpt lat="41.91599928504493" lon="1.4593344379616595"><ele>811.0</ele><time>2026-03-30T09:23:57Z</time></trkpt><trkpt lat="41.9159362501052" lon="1.4594223534845332"><ele>811.0</ele><time>2026-03-30T09:23:58Z</time></trkpt><trkpt lat="41.91585418236403" lon="1.4595013712990854"><ele>811.0</ele><time>2026-03-30T09:23:59Z</time></trkpt><trkpt lat="41.91575482873792" lon="1.4595031659447033"><ele>811.0</ele><time>2026-03-30T09:24:00Z</time></trkpt><trkpt lat="41.91565514205313" lon="1.4594507396166685"><ele>810.75</ele><time>2026-03-30T09:24:01Z</time></trkpt><trkpt lat="41.915547551455916" lon="1.45936600300098"><ele>810.5</ele><time>2026-03-30T09:24:02Z</time></trkpt><trkpt lat="41.915423033169034" lon="1.4592616403483798"><ele>810.25</ele><time>2026-03-30T09:24:03Z</time></trkpt><trkpt lat="41.915304689695354" lon="1.4591586171269424"><ele>810.0</ele><time>2026-03-30T09:24:04Z</time></trkpt><trkpt lat="41.915184393687646" lon="1.4590553147296272"><ele>810.0</ele><time>2026-03-30T09:24:05Z</time></trkpt><trkpt lat="41.91506901978724" lon="1.4589590738311315"><ele>810.0</ele><time>2026-03-30T09:24:06Z</time></trkpt><trkpt lat="41.91495503943961" lon="1.458863792091435"><ele>810.0</ele><time>2026-03-30T09:24:07Z</time></trkpt><trkpt lat="41.91484254992857" lon="1.4587670490021267"><ele>810.0</ele><time>2026-03-30T09:24:08Z</time></trkpt><trkpt lat="41.91473750208826" lon="1.4586761964816317"><ele>807.5</ele><time>2026-03-30T09:24:09Z</time></trkpt><trkpt lat="41.91464279337218" lon="1.4585870201117983"><ele>805.0</ele><time>2026-03-30T09:24:10Z</time></trkpt><trkpt lat="41.91455209625498" lon="1.4584678956234254"><ele>802.5</ele><time>2026-03-30T09:24:11Z</time></trkpt><trkpt lat="41.91449020040149" lon="1.4582996156375099"><ele>800.0</ele><time>2026-03-30T09:24:12Z</time></trkpt><trkpt lat="41.91448002780114" lon="1.4581222833601954"><ele>798.5</ele><time>2026-03-30T09:24:13Z</time></trkpt><trkpt lat="41.914495641024764" lon="1.4579475017941406"><ele>797.0</ele><time>2026-03-30T09:24:14Z</time></trkpt><trkpt lat="41.914514967277" lon="1.4577561603859783"><ele>795.5</ele><time>2026-03-30T09:24:15Z</time></trkpt><trkpt lat="41.91453365598755" lon="1.4575619127375756"><ele>794.0</ele><time>2026-03-30T09:24:16Z</time></trkpt><trkpt lat="41.91455115486181" lon="1.457368946449601"><ele>794.0</ele><time>2026-03-30T09:24:17Z</time></trkpt><trkpt lat="41.914567388009374" lon="1.4571899377819693"><ele>794.0</ele><time>2026-03-30T09:24:18Z</time></trkpt><trkpt lat="41.914583545216416" lon="1.4570117665379554"><ele>794.0</ele><time>2026-03-30T09:24:19Z</time></trkpt><trkpt lat="41.91458237860145" lon="1.4568319385281538"><ele>794.0</ele><time>2026-03-30T09:24:20Z</time></trkpt><trkpt lat="41.914591635361404" lon="1.456647202315351"><ele>792.75</ele><time>2026-03-30T09:24:21Z</time></trkpt><trkpt lat="41.914564926753734" lon="1.4564637146496382"><ele>791.5</ele><time>2026-03-30T09:24:22Z</time></trkpt><trkpt lat="41.91452283194081" lon="1.4562789818819788"><ele>790.25</ele><time>2026-03-30T09:24:23Z</time></trkpt><trkpt lat="41.91446405196176" lon="1.4561018274432742"><ele>789.0</ele><time>2026-03-30T09:24:24Z</time></trkpt><trkpt lat="41.91441337038272" lon="1.45592722727637"><ele>787.75</ele><time>2026-03-30T09:24:25Z</time></trkpt><trkpt lat="41.91439080861319" lon="1.455746469328318"><ele>786.5</ele><time>2026-03-30T09:24:26Z</time></trkpt><trkpt lat="41.91440457399649" lon="1.4555504777698778"><ele>785.25</ele><time>2026-03-30T09:24:27Z</time></trkpt><trkpt lat="41.91442965386026" lon="1.455343165689616"><ele>784.0</ele><time>2026-03-30T09:24:28Z</time></trkpt><trkpt lat="41.91442619334399" lon="1.4551961371573463"><ele>783.5</ele><time>2026-03-30T09:24:29Z</time></trkpt><trkpt lat="41.91439637678869" lon="1.4550308047160643"><ele>783.0</ele><time>2026-03-30T09:24:30Z</time></trkpt><trkpt lat="41.91430339920229" lon="1.4548768537041037"><ele>782.5</ele><time>2026-03-30T09:24:31Z</time></trkpt><trkpt lat="41.914198345926046" lon="1.4547306216827676"><ele>782.0</ele><time>2026-03-30T09:24:32Z</time></trkpt><trkpt lat="41.91408679633561" lon="1.4545724067381252"><ele>782.0</ele><time>2026-03-30T09:24:33Z</time></trkpt><trkpt lat="41.91400156578589" lon="1.454389236472918"><ele>782.0</ele><time>2026-03-30T09:24:34Z</time></trkpt><trkpt lat="41.9139197900537" lon="1.4542079098237728"><ele>782.0</ele><time>2026-03-30T09:24:35Z</time></trkpt><trkpt lat="41.91389405677978" lon="1.4540282133306286"><ele>782.0</ele><time>2026-03-30T09:24:36Z</time></trkpt><trkpt lat="41.913876121568904" lon="1.4538405936241994"><ele>782.0</ele><time>2026-03-30T09:24:37Z</time></trkpt><trkpt lat="41.91387416120231" lon="1.4536543424887995"><ele>782.0</ele><time>2026-03-30T09:24:38Z</time></trkpt><trkpt lat="41.91386834495509" lon="1.4534538394489798"><ele>782.0</ele><time>2026-03-30T09:24:39Z</time></trkpt><trkpt lat="41.913839246877295" lon="1.4532567211413745"><ele>781.0</ele><time>2026-03-30T09:24:40Z</time></trkpt><trkpt lat="41.91378839459787" lon="1.4530656017811863"><ele>780.0</ele><time>2026-03-30T09:24:41Z</time></trkpt><trkpt lat="41.91373929116669" lon="1.4528745804222416"><ele>779.0</ele><time>2026-03-30T09:24:42Z</time></trkpt><trkpt lat="41.913687349406224" lon="1.452681503342666"><ele>778.5</ele><time>2026-03-30T09:24:43Z</time></trkpt><trkpt lat="41.91362993958587" lon="1.4524988627596724"><ele>778.0</ele><time>2026-03-30T09:24:44Z</time></trkpt><trkpt lat="41.91353721008723" lon="1.4523568259523312"><ele>777.5</ele><time>2026-03-30T09:24:45Z</time></trkpt><trkpt lat="41.91342514484225" lon="1.452261286528369"><ele>777.0</ele><time>2026-03-30T09:24:46Z</time></trkpt><trkpt lat="41.91327288979579" lon="1.4522131183387172"><ele>777.0</ele><time>2026-03-30T09:24:47Z</time></trkpt><trkpt lat="41.91313126934421" lon="1.4521302683482065"><ele>777.0</ele><time>2026-03-30T09:24:48Z</time></trkpt><trkpt lat="41.91300009619068" lon="1.45206040842064"><ele>777.0</ele><time>2026-03-30T09:24:49Z</time></trkpt><trkpt lat="41.91288419077264" lon="1.451988708162828"><ele>777.0</ele><time>2026-03-30T09:24:50Z</time></trkpt><trkpt lat="41.912776030689045" lon="1.4519031297064193"><ele>775.0</ele><time>2026-03-30T09:24:51Z</time></trkpt><trkpt lat="41.91269573392154" lon="1.4517598096703166"><ele>773.0</ele><time>2026-03-30T09:24:52Z</time></trkpt><trkpt lat="41.912624259111254" lon="1.4515930926461382"><ele>771.0</ele><time>2026-03-30T09:24:53Z</time></trkpt><trkpt lat="41.91257760761236" lon="1.4514186590297795"><ele>769.0</ele><time>2026-03-30T09:24:54Z</time></trkpt><trkpt lat="41.91255119633085" lon="1.4512355249144044"><ele>768.75</ele><time>2026-03-30T09:24:55Z</time></trkpt><trkpt lat="41.912512920905556" lon="1.4510638949438743"><ele>768.5</ele><time>2026-03-30T09:24:56Z</time></trkpt><trkpt lat="41.91245111909233" lon="1.450904076863187"><ele>768.25</ele><time>2026-03-30T09:24:57Z</time></trkpt><trkpt lat="41.91234971414702" lon="1.4507930891728522"><ele>768.0</ele><time>2026-03-30T09:24:58Z</time></trkpt><trkpt lat="41.91222170617031" lon="1.4507272557546615"><ele>768.0</ele><time>2026-03-30T09:24:59Z</time></trkpt><trkpt lat="41.912098596848814" lon="1.4506403441960058"><ele>768.0</ele><time>2026-03-30T09:25:00Z</time></trkpt><trkpt lat="41.91197137444576" lon="1.4505499299276852"><ele>768.0</ele><time>2026-03-30T09:25:01Z</time></trkpt><trkpt lat="41.91182724704615" lon="1.4504473692177515"><ele>768.0</ele><time>2026-03-30T09:25:02Z</time></trkpt><trkpt lat="41.91169422889586" lon="1.4503494952147102"><ele>766.6666666666666</ele><time>2026-03-30T09:25:03Z</time></trkpt><trkpt lat="41.911568643580175" lon="1.4502402023432888"><ele>765.3333333333333</ele><time>2026-03-30T09:25:04Z</time></trkpt><trkpt lat="41.911442871491055" lon="1.450110277042109"><ele>764.0</ele><time>2026-03-30T09:25:05Z</time></trkpt><trkpt lat="41.91130804027294" lon="1.4499710739771936"><ele>764.0</ele><time>2026-03-30T09:25:06Z</time></trkpt><trkpt lat="41.91118346543225" lon="1.449845888421947"><ele>764.0</ele><time>2026-03-30T09:25:07Z</time></trkpt><trkpt lat="41.91104890271215" lon="1.4497720212626108"><ele>764.0</ele><time>2026-03-30T09:25:08Z</time></trkpt><trkpt lat="41.91091464605049" lon="1.449717667761082"><ele>764.0</ele><time>2026-03-30T09:25:09Z</time></trkpt><trkpt lat="41.91076342132042" lon="1.4496961168982219"><ele>763.6666666666666</ele><time>2026-03-30T09:25:10Z</time></trkpt><trkpt lat="41.91061434664585" lon="1.4496445541754857"><ele>763.3333333333334</ele><time>2026-03-30T09:25:11Z</time></trkpt><trkpt lat="41.91046254850576" lon="1.4496061960888382"><ele>763.0</ele><time>2026-03-30T09:25:12Z</time></trkpt><trkpt lat="41.91031167711077" lon="1.4495635645192821"><ele>762.75</ele><time>2026-03-30T09:25:13Z</time></trkpt><trkpt lat="41.910163352079145" lon="1.449507606994039"><ele>762.5</ele><time>2026-03-30T09:25:14Z</time></trkpt><trkpt lat="41.910023573649944" lon="1.4494400998387"><ele>762.25</ele><time>2026-03-30T09:25:15Z</time></trkpt><trkpt lat="41.9098931431515" lon="1.4493745938394518"><ele>762.0</ele><time>2026-03-30T09:25:16Z</time></trkpt><trkpt lat="41.90976870738775" lon="1.4493182288614768"><ele>760.5</ele><time>2026-03-30T09:25:17Z</time></trkpt><trkpt lat="41.909644068498025" lon="1.4493091030197753"><ele>759.0</ele><time>2026-03-30T09:25:18Z</time></trkpt><trkpt lat="41.909521283274465" lon="1.449318997410048"><ele>757.5</ele><time>2026-03-30T09:25:19Z</time></trkpt><trkpt lat="41.90939652318076" lon="1.4493632052507837"><ele>756.0</ele><time>2026-03-30T09:25:20Z</time></trkpt><trkpt lat="41.90927424630506" lon="1.4493749855465068"><ele>755.75</ele><time>2026-03-30T09:25:21Z</time></trkpt><trkpt lat="41.90915916712109" lon="1.449343245674818"><ele>755.5</ele><time>2026-03-30T09:25:22Z</time></trkpt><trkpt lat="41.9090541669823" lon="1.4492753480799119"><ele>755.25</ele><time>2026-03-30T09:25:23Z</time></trkpt><trkpt lat="41.90892952595569" lon="1.4491853934242422"><ele>755.0</ele><time>2026-03-30T09:25:24Z</time></trkpt><trkpt lat="41.9087911746172" lon="1.4490868608349798"><ele>755.0</ele><time>2026-03-30T09:25:25Z</time></trkpt><trkpt lat="41.90865546219969" lon="1.4489904038842296"><ele>755.0</ele><time>2026-03-30T09:25:26Z</time></trkpt><trkpt lat="41.90852035300098" lon="1.4488890778328276"><ele>755.0</ele><time>2026-03-30T09:25:27Z</time></trkpt><trkpt lat="41.9083872664353" lon="1.4487888209772626"><ele>753.6666666666666</ele><time>2026-03-30T09:25:28Z</time></trkpt><trkpt lat="41.90824662423934" lon="1.448705656592476"><ele>752.3333333333334</ele><time>2026-03-30T09:25:29Z</time></trkpt><trkpt lat="41.90810402564389" lon="1.4486524757558978"><ele>751.0</ele><time>2026-03-30T09:25:30Z</time></trkpt><trkpt lat="41.9079532353168" lon="1.4486242182317188"><ele>751.0</ele><time>2026-03-30T09:25:31Z</time></trkpt><trkpt lat="41.907810364426645" lon="1.4486101708407462"><ele>751.0</ele><time>2026-03-30T09:25:32Z</time></trkpt><trkpt lat="41.907659378395444" lon="1.4485872442977739"><ele>751.0</ele><time>2026-03-30T09:25:33Z</time></trkpt><trkpt lat="41.90753186475686" lon="1.4485397981040988"><ele>751.0</ele><time>2026-03-30T09:25:34Z</time></trkpt><trkpt lat="41.907411245227955" lon="1.448473571404895"><ele>750.75</ele><time>2026-03-30T09:25:35Z</time></trkpt><trkpt lat="41.907289457819594" lon="1.4483981777441182"><ele>750.5</ele><time>2026-03-30T09:25:36Z</time></trkpt><trkpt lat="41.90716509164246" lon="1.44830630492914"><ele>750.25</ele><time>2026-03-30T09:25:37Z</time></trkpt><trkpt lat="41.90703598885017" lon="1.448187931200215"><ele>750.0</ele><time>2026-03-30T09:25:38Z</time></trkpt><trkpt lat="41.906902900348186" lon="1.448050112774226"><ele>749.0</ele><time>2026-03-30T09:25:39Z</time></trkpt><trkpt lat="41.90677068787384" lon="1.4479109101435659"><ele>748.0</ele><time>2026-03-30T09:25:40Z</time></trkpt><trkpt lat="41.906627073223795" lon="1.4477570593672346"><ele>747.0</ele><time>2026-03-30T09:25:41Z</time></trkpt><trkpt lat="41.906481056358054" lon="1.4476006351056108"><ele>747.0</ele><time>2026-03-30T09:25:42Z</time></trkpt><trkpt lat="41.90633905929002" lon="1.4474485170658786"><ele>747.0</ele><time>2026-03-30T09:25:43Z</time></trkpt><trkpt lat="41.90621178190938" lon="1.4473106414557766"><ele>747.0</ele><time>2026-03-30T09:25:44Z</time></trkpt><trkpt lat="41.90607806776772" lon="1.4471653487368523"><ele>748.0</ele><time>2026-03-30T09:25:45Z</time></trkpt><trkpt lat="41.905937942863666" lon="1.4470213824676421"><ele>749.0</ele><time>2026-03-30T09:25:46Z</time></trkpt><trkpt lat="41.90578907725957" lon="1.4468913754156087"><ele>750.0</ele><time>2026-03-30T09:25:47Z</time></trkpt><trkpt lat="41.905636824234136" lon="1.4467843557932736"><ele>750.0</ele><time>2026-03-30T09:25:48Z</time></trkpt><trkpt lat="41.90548540430891" lon="1.4466864143870186"><ele>750.0</ele><time>2026-03-30T09:25:49Z</time></trkpt><trkpt lat="41.90534757789034" lon="1.4465892518531067"><ele>750.0</ele><time>2026-03-30T09:25:50Z</time></trkpt><trkpt lat="41.905219517213936" lon="1.446476914067839"><ele>750.0</ele><time>2026-03-30T09:25:51Z</time></trkpt><trkpt lat="41.905099676766035" lon="1.4463420268093419"><ele>750.0</ele><time>2026-03-30T09:25:52Z</time></trkpt><trkpt lat="41.90497834097182" lon="1.4462018656452476"><ele>750.0</ele><time>2026-03-30T09:25:53Z</time></trkpt><trkpt lat="41.904851281957676" lon="1.446052209684987"><ele>749.0</ele><time>2026-03-30T09:25:54Z</time></trkpt><trkpt lat="41.9047259940867" lon="1.4459046409653273"><ele>748.0</ele><time>2026-03-30T09:25:55Z</time></trkpt><trkpt lat="41.90459735611256" lon="1.4457531250130495"><ele>747.0</ele><time>2026-03-30T09:25:56Z</time></trkpt><trkpt lat="41.904477457309454" lon="1.4456119027849659"><ele>747.0</ele><time>2026-03-30T09:25:57Z</time></trkpt><trkpt lat="41.904359854252895" lon="1.4454731034180976"><ele>747.0</ele><time>2026-03-30T09:25:58Z</time></trkpt><trkpt lat="41.90424561975683" lon="1.4453360065104135"><ele>747.0</ele><time>2026-03-30T09:25:59Z</time></trkpt><trkpt lat="41.90413005735996" lon="1.4451973159339855"><ele>743.3333333333334</ele><time>2026-03-30T09:26:00Z</time></trkpt><trkpt lat="41.90401250849999" lon="1.4450562411763685"><ele>739.6666666666667</ele><time>2026-03-30T09:26:01Z</time></trkpt><trkpt lat="41.90389100688724" lon="1.444911471454096"><ele>736.0</ele><time>2026-03-30T09:26:02Z</time></trkpt><trkpt lat="41.903761217781735" lon="1.444774256633241"><ele>736.0</ele><time>2026-03-30T09:26:03Z</time></trkpt><trkpt lat="41.903623736081215" lon="1.4446766626756329"><ele>736.0</ele><time>2026-03-30T09:26:04Z</time></trkpt><trkpt lat="41.90349472356156" lon="1.4445878173345437"><ele>736.0</ele><time>2026-03-30T09:26:05Z</time></trkpt><trkpt lat="41.903370030071024" lon="1.4444824600373245"><ele>736.0</ele><time>2026-03-30T09:26:06Z</time></trkpt><trkpt lat="41.903252963126285" lon="1.4443755734500714"><ele>735.75</ele><time>2026-03-30T09:26:07Z</time></trkpt><trkpt lat="41.90315161001097" lon="1.4442428175166622"><ele>735.5</ele><time>2026-03-30T09:26:08Z</time></trkpt><trkpt lat="41.90304776522253" lon="1.4440985921362715"><ele>735.25</ele><time>2026-03-30T09:26:09Z</time></trkpt><trkpt lat="41.902940273946314" lon="1.4439470670075374"><ele>735.0</ele><time>2026-03-30T09:26:10Z</time></trkpt><trkpt lat="41.902831600405136" lon="1.4437938754374868"><ele>735.6666666666666</ele><time>2026-03-30T09:26:11Z</time></trkpt><trkpt lat="41.90271846703729" lon="1.443636313164501"><ele>736.3333333333333</ele><time>2026-03-30T09:26:12Z</time></trkpt><trkpt lat="41.90261224096272" lon="1.4434886420953785"><ele>737.0</ele><time>2026-03-30T09:26:13Z</time></trkpt><trkpt lat="41.902507890151846" lon="1.443342302338975"><ele>737.0</ele><time>2026-03-30T09:26:14Z</time></trkpt><trkpt lat="41.90236399049032" lon="1.4432356311918737"><ele>737.0</ele><time>2026-03-30T09:26:15Z</time></trkpt><trkpt lat="41.902212605400265" lon="1.4431391818790218"><ele>737.0</ele><time>2026-03-30T09:26:16Z</time></trkpt><trkpt lat="41.902049337409515" lon="1.4430731250254993"><ele>737.0</ele><time>2026-03-30T09:26:17Z</time></trkpt><trkpt lat="41.90190043366258" lon="1.4429785750760125"><ele>737.0</ele><time>2026-03-30T09:26:18Z</time></trkpt><trkpt lat="41.90175357863673" lon="1.442907549069034"><ele>737.0</ele><time>2026-03-30T09:26:19Z</time></trkpt><trkpt lat="41.90162136686768" lon="1.442844135769908"><ele>736.0</ele><time>2026-03-30T09:26:20Z</time></trkpt><trkpt lat="41.901494465958336" lon="1.4427730458978707"><ele>735.0</ele><time>2026-03-30T09:26:21Z</time></trkpt><trkpt lat="41.90138094647408" lon="1.4426803966575574"><ele>734.0</ele><time>2026-03-30T09:26:22Z</time></trkpt><trkpt lat="41.90128823160555" lon="1.4425420708625272"><ele>733.0</ele><time>2026-03-30T09:26:23Z</time></trkpt><trkpt lat="41.9011784793979" lon="1.4423932743511576"><ele>733.0</ele><time>2026-03-30T09:26:24Z</time></trkpt><trkpt lat="41.90106003136228" lon="1.44226699338658"><ele>733.0</ele><time>2026-03-30T09:26:25Z</time></trkpt><trkpt lat="41.90096618907416" lon="1.4421111035025564"><ele>733.0</ele><time>2026-03-30T09:26:26Z</time></trkpt><trkpt lat="41.900867336321205" lon="1.4419749453208066"><ele>733.0</ele><time>2026-03-30T09:26:27Z</time></trkpt><trkpt lat="41.900783312883654" lon="1.4418367133214873"><ele>732.25</ele><time>2026-03-30T09:26:28Z</time></trkpt><trkpt lat="41.90071781613125" lon="1.4416808681890172"><ele>731.5</ele><time>2026-03-30T09:26:29Z</time></trkpt><trkpt lat="41.90065427840733" lon="1.4414960595658324"><ele>730.75</ele><time>2026-03-30T09:26:30Z</time></trkpt><trkpt lat="41.900588103492105" lon="1.4413015647681109"><ele>730.0</ele><time>2026-03-30T09:26:31Z</time></trkpt><trkpt lat="41.90052100225469" lon="1.4411043474543783"><ele>729.0</ele><time>2026-03-30T09:26:32Z</time></trkpt><trkpt lat="41.90045149297599" lon="1.4408982808502746"><ele>728.0</ele><time>2026-03-30T09:26:33Z</time></trkpt><trkpt lat="41.90038476216348" lon="1.4406992529800327"><ele>727.0</ele><time>2026-03-30T09:26:34Z</time></trkpt><trkpt lat="41.90032344335234" lon="1.4405116587759625"><ele>726.25</ele><time>2026-03-30T09:26:35Z</time></trkpt><trkpt lat="41.90026896983596" lon="1.440335807549298"><ele>725.5</ele><time>2026-03-30T09:26:36Z</time></trkpt><trkpt lat="41.90020896197102" lon="1.4401721197714115"><ele>724.75</ele><time>2026-03-30T09:26:37Z</time></trkpt><trkpt lat="41.900137540743884" lon="1.4400139116203912"><ele>724.0</ele><time>2026-03-30T09:26:38Z</time></trkpt><trkpt lat="41.90002953892465" lon="1.4398803699086298"><ele>724.5</ele><time>2026-03-30T09:26:39Z</time></trkpt><trkpt lat="41.89993461323334" lon="1.4397290322770435"><ele>725.0</ele><time>2026-03-30T09:26:40Z</time></trkpt><trkpt lat="41.89983336619329" lon="1.4395837802455167"><ele>725.5</ele><time>2026-03-30T09:26:41Z</time></trkpt><trkpt lat="41.899727988452504" lon="1.4394352718066716"><ele>726.0</ele><time>2026-03-30T09:26:42Z</time></trkpt><trkpt lat="41.89961498050124" lon="1.439306206455588"><ele>726.0</ele><time>2026-03-30T09:26:43Z</time></trkpt><trkpt lat="41.89949527344588" lon="1.4391830249139608"><ele>726.0</ele><time>2026-03-30T09:26:44Z</time></trkpt><trkpt lat="41.89936166486881" lon="1.4391256046263845"><ele>726.0</ele><time>2026-03-30T09:26:45Z</time></trkpt><trkpt lat="41.89921553775963" lon="1.4391297978728166"><ele>726.0</ele><time>2026-03-30T09:26:46Z</time></trkpt><trkpt lat="41.899063713240864" lon="1.439183685682251"><ele>723.6666666666666</ele><time>2026-03-30T09:26:47Z</time></trkpt><trkpt lat="41.89890175046335" lon="1.4392103630999784"><ele>721.3333333333333</ele><time>2026-03-30T09:26:48Z</time></trkpt><trkpt lat="41.89873220003953" lon="1.4392524398663022"><ele>719.0</ele><time>2026-03-30T09:26:49Z</time></trkpt><trkpt lat="41.89856591014532" lon="1.4392937074653183"><ele>718.6666666666666</ele><time>2026-03-30T09:26:50Z</time></trkpt><trkpt lat="41.898402442354126" lon="1.439334274757944"><ele>718.3333333333334</ele><time>2026-03-30T09:26:51Z</time></trkpt><trkpt lat="41.898244572653056" lon="1.4393722857027815"><ele>718.0</ele><time>2026-03-30T09:26:52Z</time></trkpt><trkpt lat="41.8980941840144" lon="1.4394084451124516"><ele>718.0</ele><time>2026-03-30T09:26:53Z</time></trkpt><trkpt lat="41.897944694477225" lon="1.4394443883759385"><ele>718.0</ele><time>2026-03-30T09:26:54Z</time></trkpt><trkpt lat="41.89779258699492" lon="1.4394813020566157"><ele>718.0</ele><time>2026-03-30T09:26:55Z</time></trkpt><trkpt lat="41.897639359777486" lon="1.4395269181221415"><ele>717.3333333333334</ele><time>2026-03-30T09:26:56Z</time></trkpt><trkpt lat="41.897494145751224" lon="1.439610011902692"><ele>716.6666666666666</ele><time>2026-03-30T09:26:57Z</time></trkpt><trkpt lat="41.89734567625879" lon="1.4396991068552065"><ele>716.0</ele><time>2026-03-30T09:26:58Z</time></trkpt><trkpt lat="41.89720634251094" lon="1.4398206647226206"><ele>716.0</ele><time>2026-03-30T09:26:59Z</time></trkpt><trkpt lat="41.89705605487734" lon="1.4399357949018254"><ele>716.0</ele><time>2026-03-30T09:27:00Z</time></trkpt><trkpt lat="41.89691550653638" lon="1.4400588178755667"><ele>716.0</ele><time>2026-03-30T09:27:01Z</time></trkpt><trkpt lat="41.89677499228318" lon="1.4401793501361237"><ele>714.6666666666666</ele><time>2026-03-30T09:27:02Z</time></trkpt><trkpt lat="41.89663083541846" lon="1.4402788597218672"><ele>713.3333333333334</ele><time>2026-03-30T09:27:03Z</time></trkpt><trkpt lat="41.896483745017825" lon="1.4403380606193756"><ele>712.0</ele><time>2026-03-30T09:27:04Z</time></trkpt><trkpt lat="41.8963304447859" lon="1.4403453856393431"><ele>712.0</ele><time>2026-03-30T09:27:05Z</time></trkpt><trkpt lat="41.896163673051014" lon="1.4403305266655693"><ele>712.0</ele><time>2026-03-30T09:27:06Z</time></trkpt><trkpt lat="41.89599881933051" lon="1.4403131517503966"><ele>712.0</ele><time>2026-03-30T09:27:07Z</time></trkpt><trkpt lat="41.89584298351384" lon="1.440296500931502"><ele>710.6666666666667</ele><time>2026-03-30T09:27:08Z</time></trkpt><trkpt lat="41.89569108762145" lon="1.4402815671483082"><ele>709.3333333333334</ele><time>2026-03-30T09:27:09Z</time></trkpt><trkpt lat="41.89554535591573" lon="1.44026861824718"><ele>708.0</ele><time>2026-03-30T09:27:10Z</time></trkpt><trkpt lat="41.895392397020956" lon="1.4402552819659211"><ele>708.0</ele><time>2026-03-30T09:27:11Z</time></trkpt><trkpt lat="41.89524036034939" lon="1.4402385900446775"><ele>708.0</ele><time>2026-03-30T09:27:12Z</time></trkpt><trkpt lat="41.89508435206306" lon="1.4402229241106406"><ele>708.0</ele><time>2026-03-30T09:27:13Z</time></trkpt><trkpt lat="41.89493418042851" lon="1.440213957659029"><ele>709.0</ele><time>2026-03-30T09:27:14Z</time></trkpt><trkpt lat="41.8947687764549" lon="1.4402244542833467"><ele>710.0</ele><time>2026-03-30T09:27:15Z</time></trkpt><trkpt lat="41.89461203552227" lon="1.4402401427060636"><ele>711.0</ele><time>2026-03-30T09:27:16Z</time></trkpt><trkpt lat="41.89446269011104" lon="1.4402576194428143"><ele>711.0</ele><time>2026-03-30T09:27:17Z</time></trkpt><trkpt lat="41.89432100517782" lon="1.4403173004406558"><ele>711.0</ele><time>2026-03-30T09:27:18Z</time></trkpt><trkpt lat="41.89417679775393" lon="1.440406289140712"><ele>711.0</ele><time>2026-03-30T09:27:19Z</time></trkpt><trkpt lat="41.8940412824603" lon="1.4405398629203217"><ele>712.6666666666666</ele><time>2026-03-30T09:27:20Z</time></trkpt><trkpt lat="41.893887554785735" lon="1.4406248308048737"><ele>714.3333333333333</ele><time>2026-03-30T09:27:21Z</time></trkpt><trkpt lat="41.89373318035465" lon="1.440694628503583"><ele>716.0</ele><time>2026-03-30T09:27:22Z</time></trkpt><trkpt lat="41.89357557002662" lon="1.4407644758561446"><ele>716.0</ele><time>2026-03-30T09:27:23Z</time></trkpt><trkpt lat="41.89342893144989" lon="1.4408253493730094"><ele>716.0</ele><time>2026-03-30T09:27:24Z</time></trkpt><trkpt lat="41.89327975176631" lon="1.440883784314653"><ele>716.0</ele><time>2026-03-30T09:27:25Z</time></trkpt><trkpt lat="41.89313211344182" lon="1.4408825565733108"><ele>714.3333333333333</ele><time>2026-03-30T09:27:26Z</time></trkpt><trkpt lat="41.89298381925749" lon="1.440848744124977"><ele>712.6666666666666</ele><time>2026-03-30T09:27:27Z</time></trkpt><trkpt lat="41.892826431998756" lon="1.4407972639788957"><ele>711.0</ele><time>2026-03-30T09:27:28Z</time></trkpt><trkpt lat="41.89267207103451" lon="1.4407447422604884"><ele>710.0</ele><time>2026-03-30T09:27:29Z</time></trkpt><trkpt lat="41.892524280657796" lon="1.440694011292823"><ele>709.0</ele><time>2026-03-30T09:27:30Z</time></trkpt><trkpt lat="41.89237944351902" lon="1.4406442941098134"><ele>708.0</ele><time>2026-03-30T09:27:31Z</time></trkpt><trkpt lat="41.89223125553096" lon="1.4405918993575557"><ele>708.0</ele><time>2026-03-30T09:27:32Z</time></trkpt><trkpt lat="41.89207877750214" lon="1.4405393605757082"><ele>708.0</ele><time>2026-03-30T09:27:33Z</time></trkpt><trkpt lat="41.89192310946376" lon="1.4405066699858085"><ele>708.0</ele><time>2026-03-30T09:27:34Z</time></trkpt><trkpt lat="41.89176125517006" lon="1.44052610445309"><ele>708.6666666666666</ele><time>2026-03-30T09:27:35Z</time></trkpt><trkpt lat="41.8916016720232" lon="1.440543056301708"><ele>709.3333333333333</ele><time>2026-03-30T09:27:36Z</time></trkpt><trkpt lat="41.891439578326995" lon="1.4405801728464092"><ele>710.0</ele><time>2026-03-30T09:27:37Z</time></trkpt><trkpt lat="41.89128107594853" lon="1.4406150904694375"><ele>710.0</ele><time>2026-03-30T09:27:38Z</time></trkpt><trkpt lat="41.89112773737246" lon="1.440648748961338"><ele>710.0</ele><time>2026-03-30T09:27:39Z</time></trkpt><trkpt lat="41.8909751660293" lon="1.4406838074182418"><ele>710.0</ele><time>2026-03-30T09:27:40Z</time></trkpt><trkpt lat="41.890825065396584" lon="1.440746652485997"><ele>709.6666666666666</ele><time>2026-03-30T09:27:41Z</time></trkpt><trkpt lat="41.890655961263526" lon="1.4407760049977558"><ele>709.3333333333334</ele><time>2026-03-30T09:27:42Z</time></trkpt><trkpt lat="41.89048867577435" lon="1.4407874237271523"><ele>709.0</ele><time>2026-03-30T09:27:43Z</time></trkpt><trkpt lat="41.8903228655639" lon="1.4408045891854124"><ele>709.0</ele><time>2026-03-30T09:27:44Z</time></trkpt><trkpt lat="41.890155985015234" lon="1.4407840740159008"><ele>709.0</ele><time>2026-03-30T09:27:45Z</time></trkpt><trkpt lat="41.88998705317969" lon="1.4407997541700805"><ele>709.0</ele><time>2026-03-30T09:27:46Z</time></trkpt><trkpt lat="41.889823734680455" lon="1.4408207292063002"><ele>708.5</ele><time>2026-03-30T09:27:47Z</time></trkpt><trkpt lat="41.88967257362372" lon="1.4408592570786132"><ele>708.0</ele><time>2026-03-30T09:27:48Z</time></trkpt><trkpt lat="41.88953235723244" lon="1.4408940580470875"><ele>707.5</ele><time>2026-03-30T09:27:49Z</time></trkpt><trkpt lat="41.88939308306762" lon="1.440921868076556"><ele>707.0</ele><time>2026-03-30T09:27:50Z</time></trkpt><trkpt lat="41.8892724054014" lon="1.4409197444338635"><ele>706.5</ele><time>2026-03-30T09:27:51Z</time></trkpt><trkpt lat="41.88917755190178" lon="1.4408461520312663"><ele>706.0</ele><time>2026-03-30T09:27:52Z</time></trkpt><trkpt lat="41.88908813114319" lon="1.4407381235449646"><ele>705.5</ele><time>2026-03-30T09:27:53Z</time></trkpt><trkpt lat="41.88898912442103" lon="1.4406139409026246"><ele>705.0</ele><time>2026-03-30T09:27:54Z</time></trkpt><trkpt lat="41.88889937034667" lon="1.4404990112767395"><ele>707.5</ele><time>2026-03-30T09:27:55Z</time></trkpt><trkpt lat="41.88881017067428" lon="1.440382218269083"><ele>710.0</ele><time>2026-03-30T09:27:56Z</time></trkpt><trkpt lat="41.88869396678323" lon="1.4402917397439083"><ele>712.5</ele><time>2026-03-30T09:27:57Z</time></trkpt><trkpt lat="41.88857432550098" lon="1.4402204800193479"><ele>715.0</ele><time>2026-03-30T09:27:58Z</time></trkpt><trkpt lat="41.888430885973406" lon="1.4402055189444876"><ele>713.6666666666667</ele><time>2026-03-30T09:27:59Z</time></trkpt><trkpt lat="41.88826977929594" lon="1.4402357920240525"><ele>712.3333333333334</ele><time>2026-03-30T09:28:00Z</time></trkpt><trkpt lat="41.88810654998102" lon="1.4402499579737225"><ele>711.0</ele><time>2026-03-30T09:28:01Z</time></trkpt><trkpt lat="41.88795354785003" lon="1.4402797599958619"><ele>711.0</ele><time>2026-03-30T09:28:02Z</time></trkpt><trkpt lat="41.88780375419708" lon="1.4403114059788693"><ele>711.0</ele><time>2026-03-30T09:28:03Z</time></trkpt><trkpt lat="41.88764077363842" lon="1.4403462629353159"><ele>711.0</ele><time>2026-03-30T09:28:04Z</time></trkpt><trkpt lat="41.887482973930126" lon="1.44038001187147"><ele>713.0</ele><time>2026-03-30T09:28:05Z</time></trkpt><trkpt lat="41.8873188008482" lon="1.4404145243512814"><ele>715.0</ele><time>2026-03-30T09:28:06Z</time></trkpt><trkpt lat="41.88716752722375" lon="1.4404453794931078"><ele>717.0</ele><time>2026-03-30T09:28:07Z</time></trkpt><trkpt lat="41.8870131986837" lon="1.440474914403425"><ele>713.0</ele><time>2026-03-30T09:28:08Z</time></trkpt><trkpt lat="41.88685910726369" lon="1.440497187419694"><ele>709.0</ele><time>2026-03-30T09:28:09Z</time></trkpt><trkpt lat="41.88669653223531" lon="1.4405249200360886"><ele>705.0</ele><time>2026-03-30T09:28:10Z</time></trkpt><trkpt lat="41.88653543799195" lon="1.440571400189978"><ele>705.0</ele><time>2026-03-30T09:28:11Z</time></trkpt><trkpt lat="41.886377733945416" lon="1.4406305868500675"><ele>705.0</ele><time>2026-03-30T09:28:12Z</time></trkpt><trkpt lat="41.88622874431165" lon="1.4406897925992912"><ele>705.0</ele><time>2026-03-30T09:28:13Z</time></trkpt><trkpt lat="41.886078099207445" lon="1.440750160239705"><ele>705.0</ele><time>2026-03-30T09:28:14Z</time></trkpt><trkpt lat="41.885934007311256" lon="1.440806316450544"><ele>705.0</ele><time>2026-03-30T09:28:15Z</time></trkpt><trkpt lat="41.885790958116225" lon="1.4408648369497552"><ele>705.0</ele><time>2026-03-30T09:28:16Z</time></trkpt><trkpt lat="41.88564805128122" lon="1.4409255902228408"><ele>705.0</ele><time>2026-03-30T09:28:17Z</time></trkpt><trkpt lat="41.8855182421633" lon="1.4409912214393361"><ele>706.8</ele><time>2026-03-30T09:28:18Z</time></trkpt><trkpt lat="41.88540733170912" lon="1.4410595977390361"><ele>708.6</ele><time>2026-03-30T09:28:19Z</time></trkpt><trkpt lat="41.88530750292619" lon="1.4411155735081875"><ele>710.4000000000001</ele><time>2026-03-30T09:28:20Z</time></trkpt><trkpt lat="41.8852032292256" lon="1.4411116826519434"><ele>712.2</ele><time>2026-03-30T09:28:21Z</time></trkpt><trkpt lat="41.885113705932426" lon="1.4410522514037525"><ele>714.0</ele><time>2026-03-30T09:28:22Z</time></trkpt><trkpt lat="41.88504862843644" lon="1.4409316406722068"><ele>714.0</ele><time>2026-03-30T09:28:23Z</time></trkpt><trkpt lat="41.88499134918581" lon="1.440802860068517"><ele>714.0</ele><time>2026-03-30T09:28:24Z</time></trkpt><trkpt lat="41.88498946328981" lon="1.440661553391934"><ele>714.0</ele><time>2026-03-30T09:28:25Z</time></trkpt><trkpt lat="41.88499537779341" lon="1.4405101575791202"><ele>714.0</ele><time>2026-03-30T09:28:26Z</time></trkpt><trkpt lat="41.884992554594525" lon="1.4403649353870842"><ele>714.0</ele><time>2026-03-30T09:28:27Z</time></trkpt><trkpt lat="41.88498212142262" lon="1.4402272671173872"><ele>717.25</ele><time>2026-03-30T09:28:28Z</time></trkpt><trkpt lat="41.88491914533762" lon="1.4401023872274463"><ele>720.5</ele><time>2026-03-30T09:28:29Z</time></trkpt><trkpt lat="41.88481369833317" lon="1.4400315916653037"><ele>723.75</ele><time>2026-03-30T09:28:30Z</time></trkpt><trkpt lat="41.8846974009043" lon="1.4400419172644834"><ele>727.0</ele><time>2026-03-30T09:28:31Z</time></trkpt><trkpt lat="41.88458607812759" lon="1.440111532505359"><ele>727.0</ele><time>2026-03-30T09:28:32Z</time></trkpt><trkpt lat="41.88448851803651" lon="1.4402225662363708"><ele>727.0</ele><time>2026-03-30T09:28:33Z</time></trkpt><trkpt lat="41.88438466289266" lon="1.440328677432076"><ele>727.0</ele><time>2026-03-30T09:28:34Z</time></trkpt><trkpt lat="41.88428946761964" lon="1.4404385474494232"><ele>727.0</ele><time>2026-03-30T09:28:35Z</time></trkpt><trkpt lat="41.88419527174518" lon="1.4405389303375586"><ele>724.5</ele><time>2026-03-30T09:28:36Z</time></trkpt><trkpt lat="41.88408972374643" lon="1.4405842935169217"><ele>722.0</ele><time>2026-03-30T09:28:37Z</time></trkpt><trkpt lat="41.88397425659902" lon="1.440618789585749"><ele>719.5</ele><time>2026-03-30T09:28:38Z</time></trkpt><trkpt lat="41.88384754544305" lon="1.4406437289765797"><ele>717.0</ele><time>2026-03-30T09:28:39Z</time></trkpt><trkpt lat="41.883719143733316" lon="1.4406604684228295"><ele>717.0</ele><time>2026-03-30T09:28:40Z</time></trkpt><trkpt lat="41.88359069061034" lon="1.4406500630789103"><ele>717.0</ele><time>2026-03-30T09:28:41Z</time></trkpt><trkpt lat="41.88345666430921" lon="1.4406181907152285"><ele>717.0</ele><time>2026-03-30T09:28:42Z</time></trkpt><trkpt lat="41.88331449702342" lon="1.440583722662695"><ele>717.0</ele><time>2026-03-30T09:28:43Z</time></trkpt><trkpt lat="41.88317254156635" lon="1.440562592048583"><ele>718.5</ele><time>2026-03-30T09:28:44Z</time></trkpt><trkpt lat="41.88302607642765" lon="1.4405796971327525"><ele>720.0</ele><time>2026-03-30T09:28:45Z</time></trkpt><trkpt lat="41.88287803242819" lon="1.4406135320937987"><ele>721.5</ele><time>2026-03-30T09:28:46Z</time></trkpt><trkpt lat="41.882729750884664" lon="1.4406517218900492"><ele>723.0</ele><time>2026-03-30T09:28:47Z</time></trkpt><trkpt lat="41.882576453940246" lon="1.4406913929199332"><ele>725.0</ele><time>2026-03-30T09:28:48Z</time></trkpt><trkpt lat="41.88242497157607" lon="1.440730594340495"><ele>727.0</ele><time>2026-03-30T09:28:49Z</time></trkpt><trkpt lat="41.88227440817041" lon="1.4407719246889086"><ele>729.0</ele><time>2026-03-30T09:28:50Z</time></trkpt><trkpt lat="41.882133283563995" lon="1.4408180103766077"><ele>729.0</ele><time>2026-03-30T09:28:51Z</time></trkpt><trkpt lat="41.881992857628745" lon="1.4408635413294402"><ele>729.0</ele><time>2026-03-30T09:28:52Z</time></trkpt><trkpt lat="41.88184836931692" lon="1.4409102268252356"><ele>729.0</ele><time>2026-03-30T09:28:53Z</time></trkpt><trkpt lat="41.88170810497095" lon="1.440965553931263"><ele>729.0</ele><time>2026-03-30T09:28:54Z</time></trkpt><trkpt lat="41.88157383170938" lon="1.4410392644591439"><ele>727.0</ele><time>2026-03-30T09:28:55Z</time></trkpt><trkpt lat="41.88146119070378" lon="1.4411395251767343"><ele>725.0</ele><time>2026-03-30T09:28:56Z</time></trkpt><trkpt lat="41.88134472490825" lon="1.4412329467535125"><ele>723.0</ele><time>2026-03-30T09:28:57Z</time></trkpt><trkpt lat="41.88122224528566" lon="1.441314213135545"><ele>721.0</ele><time>2026-03-30T09:28:58Z</time></trkpt><trkpt lat="41.881097477075066" lon="1.4413403194447332"><ele>721.0</ele><time>2026-03-30T09:28:59Z</time></trkpt><trkpt lat="41.88097329379071" lon="1.4413256092191402"><ele>721.0</ele><time>2026-03-30T09:29:00Z</time></trkpt><trkpt lat="41.880860509075696" lon="1.4412578845404185"><ele>721.0</ele><time>2026-03-30T09:29:01Z</time></trkpt><trkpt lat="41.88074515987752" lon="1.4411736103296617"><ele>721.0</ele><time>2026-03-30T09:29:02Z</time></trkpt><trkpt lat="41.880636724201494" lon="1.441100203252867"><ele>725.1999999999999</ele><time>2026-03-30T09:29:03Z</time></trkpt><trkpt lat="41.88053966431639" lon="1.441055317031658"><ele>729.4</ele><time>2026-03-30T09:29:04Z</time></trkpt><trkpt lat="41.88044738020726" lon="1.4410377141398905"><ele>733.6</ele><time>2026-03-30T09:29:05Z</time></trkpt><trkpt lat="41.88035364393035" lon="1.4410452533128675"><ele>737.8</ele><time>2026-03-30T09:29:06Z</time></trkpt><trkpt lat="41.880249681284226" lon="1.4410628368251157"><ele>742.0</ele><time>2026-03-30T09:29:07Z</time></trkpt><trkpt lat="41.88013196273183" lon="1.4410838358206617"><ele>740.75</ele><time>2026-03-30T09:29:08Z</time></trkpt><trkpt lat="41.880009395243846" lon="1.441095315000758"><ele>739.5</ele><time>2026-03-30T09:29:09Z</time></trkpt><trkpt lat="41.879882126288386" lon="1.4410834571598568"><ele>738.25</ele><time>2026-03-30T09:29:10Z</time></trkpt><trkpt lat="41.879767052945596" lon="1.4410082304518474"><ele>737.0</ele><time>2026-03-30T09:29:11Z</time></trkpt><trkpt lat="41.879637301148186" lon="1.4409320680455133"><ele>737.0</ele><time>2026-03-30T09:29:12Z</time></trkpt><trkpt lat="41.87950361366082" lon="1.4408488251268914"><ele>737.0</ele><time>2026-03-30T09:29:13Z</time></trkpt><trkpt lat="41.879367338552115" lon="1.4407640689087942"><ele>737.0</ele><time>2026-03-30T09:29:14Z</time></trkpt><trkpt lat="41.879235396221866" lon="1.4406842505422635"><ele>737.0</ele><time>2026-03-30T09:29:15Z</time></trkpt><trkpt lat="41.87912940706485" lon="1.4406149682705274"><ele>736.6</ele><time>2026-03-30T09:29:16Z</time></trkpt><trkpt lat="41.87905840213879" lon="1.4405301194807412"><ele>736.2</ele><time>2026-03-30T09:29:17Z</time></trkpt><trkpt lat="41.87903041900501" lon="1.4404065908937471"><ele>735.8</ele><time>2026-03-30T09:29:18Z</time></trkpt><trkpt lat="41.879007196167954" lon="1.4402468396354935"><ele>735.4</ele><time>2026-03-30T09:29:19Z</time></trkpt><trkpt lat="41.87901756776769" lon="1.4400914569458605"><ele>735.0</ele><time>2026-03-30T09:29:20Z</time></trkpt><trkpt lat="41.87907098122679" lon="1.4399550033985675"><ele>735.0</ele><time>2026-03-30T09:29:21Z</time></trkpt><trkpt lat="41.87912228239259" lon="1.4398079795579355"><ele>735.0</ele><time>2026-03-30T09:29:22Z</time></trkpt><trkpt lat="41.879186954715095" lon="1.43966847328116"><ele>735.0</ele><time>2026-03-30T09:29:23Z</time></trkpt><trkpt lat="41.87923742809523" lon="1.4395166657857152"><ele>735.0</ele><time>2026-03-30T09:29:24Z</time></trkpt><trkpt lat="41.879279687309015" lon="1.4393557257747198"><ele>736.0</ele><time>2026-03-30T09:29:25Z</time></trkpt><trkpt lat="41.87928843650214" lon="1.439183750288951"><ele>737.0</ele><time>2026-03-30T09:29:26Z</time></trkpt><trkpt lat="41.879277400325606" lon="1.439006841610286"><ele>738.0</ele><time>2026-03-30T09:29:27Z</time></trkpt><trkpt lat="41.879275976326745" lon="1.438818289804259"><ele>739.0</ele><time>2026-03-30T09:29:28Z</time></trkpt><trkpt lat="41.879260058902396" lon="1.4386125889391657"><ele>739.0</ele><time>2026-03-30T09:29:29Z</time></trkpt><trkpt lat="41.87924608309728" lon="1.4384172577610705"><ele>739.0</ele><time>2026-03-30T09:29:30Z</time></trkpt><trkpt lat="41.8792360692309" lon="1.438241534794964"><ele>739.0</ele><time>2026-03-30T09:29:31Z</time></trkpt><trkpt lat="41.87924785198134" lon="1.438109852685004"><ele>739.0</ele><time>2026-03-30T09:29:32Z</time></trkpt><trkpt lat="41.87928502136517" lon="1.4380208389156588"><ele>740.4000000000001</ele><time>2026-03-30T09:29:33Z</time></trkpt><trkpt lat="41.87938113630122" lon="1.4380149771543635"><ele>741.8</ele><time>2026-03-30T09:29:34Z</time></trkpt><trkpt lat="41.87947842316144" lon="1.4380517909364476"><ele>743.2</ele><time>2026-03-30T09:29:35Z</time></trkpt><trkpt lat="41.87957956537557" lon="1.438130659096472"><ele>744.5999999999999</ele><time>2026-03-30T09:29:36Z</time></trkpt><trkpt lat="41.8796804259431" lon="1.4381977858650814"><ele>746.0</ele><time>2026-03-30T09:29:37Z</time></trkpt><trkpt lat="41.879794549167855" lon="1.4382191365955292"><ele>746.0</ele><time>2026-03-30T09:29:38Z</time></trkpt><trkpt lat="41.879913581956366" lon="1.4381751117957562"><ele>746.0</ele><time>2026-03-30T09:29:39Z</time></trkpt><trkpt lat="41.88001633545779" lon="1.4380911707395958"><ele>746.0</ele><time>2026-03-30T09:29:40Z</time></trkpt><trkpt lat="41.880094723003566" lon="1.4379835019011868"><ele>746.0</ele><time>2026-03-30T09:29:41Z</time></trkpt><trkpt lat="41.88011934633687" lon="1.43785127897637"><ele>745.0</ele><time>2026-03-30T09:29:42Z</time></trkpt><trkpt lat="41.880116609211456" lon="1.437700380619431"><ele>744.0</ele><time>2026-03-30T09:29:43Z</time></trkpt><trkpt lat="41.88008758814742" lon="1.4375426913594604"><ele>743.0</ele><time>2026-03-30T09:29:44Z</time></trkpt><trkpt lat="41.880064477903474" lon="1.437375781527108"><ele>742.0</ele><time>2026-03-30T09:29:45Z</time></trkpt><trkpt lat="41.88003780182195" lon="1.437202297944827"><ele>742.5</ele><time>2026-03-30T09:29:46Z</time></trkpt><trkpt lat="41.88001071282597" lon="1.4370234126087833"><ele>743.0</ele><time>2026-03-30T09:29:47Z</time></trkpt><trkpt lat="41.879983566074166" lon="1.43684414589059"><ele>743.5</ele><time>2026-03-30T09:29:48Z</time></trkpt><trkpt lat="41.87995917991321" lon="1.4366678502630617"><ele>744.0</ele><time>2026-03-30T09:29:49Z</time></trkpt><trkpt lat="41.87993537987459" lon="1.4364873290203661"><ele>745.0</ele><time>2026-03-30T09:29:50Z</time></trkpt><trkpt lat="41.87991104886047" lon="1.436303070095187"><ele>746.0</ele><time>2026-03-30T09:29:51Z</time></trkpt><trkpt lat="41.87988444532168" lon="1.4361171037635938"><ele>747.0</ele><time>2026-03-30T09:29:52Z</time></trkpt><trkpt lat="41.87983728029233" lon="1.4359375238591452"><ele>748.0</ele><time>2026-03-30T09:29:53Z</time></trkpt><trkpt lat="41.87978755101868" lon="1.4357635444724406"><ele>748.0</ele><time>2026-03-30T09:29:54Z</time></trkpt><trkpt lat="41.879715810041915" lon="1.435601694460811"><ele>748.0</ele><time>2026-03-30T09:29:55Z</time></trkpt><trkpt lat="41.87961672956129" lon="1.43545690854741"><ele>748.0</ele><time>2026-03-30T09:29:56Z</time></trkpt><trkpt lat="41.87951262200212" lon="1.43530745303517"><ele>748.0</ele><time>2026-03-30T09:29:57Z</time></trkpt><trkpt lat="41.87939617169785" lon="1.4351723242117653"><ele>748.0</ele><time>2026-03-30T09:29:58Z</time></trkpt><trkpt lat="41.879270689140476" lon="1.4350295749856414"><ele>748.0</ele><time>2026-03-30T09:29:59Z</time></trkpt><trkpt lat="41.87914777304017" lon="1.4348901270787149"><ele>748.0</ele><time>2026-03-30T09:30:00Z</time></trkpt><trkpt lat="41.87903057565559" lon="1.4347571668379002"><ele>749.5</ele><time>2026-03-30T09:30:01Z</time></trkpt><trkpt lat="41.87891600894338" lon="1.4346241975740086"><ele>751.0</ele><time>2026-03-30T09:30:02Z</time></trkpt><trkpt lat="41.87880666025066" lon="1.4344989859392607"><ele>752.5</ele><time>2026-03-30T09:30:03Z</time></trkpt><trkpt lat="41.87869925729046" lon="1.4343932751991677"><ele>754.0</ele><time>2026-03-30T09:30:04Z</time></trkpt><trkpt lat="41.878579190757875" lon="1.4342990265147801"><ele>754.0</ele><time>2026-03-30T09:30:05Z</time></trkpt><trkpt lat="41.8784377560864" lon="1.4342446936854216"><ele>754.0</ele><time>2026-03-30T09:30:06Z</time></trkpt><trkpt lat="41.878295485282145" lon="1.4342055700556868"><ele>754.0</ele><time>2026-03-30T09:30:07Z</time></trkpt><trkpt lat="41.87815751169731" lon="1.4342215538968022"><ele>754.0</ele><time>2026-03-30T09:30:08Z</time></trkpt><trkpt lat="41.8780340602459" lon="1.4342873686000233"><ele>753.0</ele><time>2026-03-30T09:30:09Z</time></trkpt><trkpt lat="41.877914333611564" lon="1.4343790962470153"><ele>752.0</ele><time>2026-03-30T09:30:10Z</time></trkpt><trkpt lat="41.87777898706882" lon="1.4344472547601685"><ele>751.0</ele><time>2026-03-30T09:30:11Z</time></trkpt><trkpt lat="41.877655561795436" lon="1.4345245957127066"><ele>750.0</ele><time>2026-03-30T09:30:12Z</time></trkpt><trkpt lat="41.87753032459567" lon="1.4346021600989942"><ele>749.0</ele><time>2026-03-30T09:30:13Z</time></trkpt><trkpt lat="41.8773987097504" lon="1.4346830410613356"><ele>748.0</ele><time>2026-03-30T09:30:14Z</time></trkpt><trkpt lat="41.8772639913149" lon="1.4347561719420003"><ele>747.0</ele><time>2026-03-30T09:30:15Z</time></trkpt><trkpt lat="41.877128699994806" lon="1.4348261198566474"><ele>746.0</ele><time>2026-03-30T09:30:16Z</time></trkpt><trkpt lat="41.87699176977579" lon="1.434896431613113"><ele>746.0</ele><time>2026-03-30T09:30:17Z</time></trkpt><trkpt lat="41.876852165722376" lon="1.43496781081765"><ele>746.0</ele><time>2026-03-30T09:30:18Z</time></trkpt><trkpt lat="41.876700947990976" lon="1.4350428925020184"><ele>746.0</ele><time>2026-03-30T09:30:19Z</time></trkpt><trkpt lat="41.876544631433404" lon="1.435120957131662"><ele>746.6666666666666</ele><time>2026-03-30T09:30:20Z</time></trkpt><trkpt lat="41.876394890228504" lon="1.4351976094637449"><ele>747.3333333333334</ele><time>2026-03-30T09:30:21Z</time></trkpt><trkpt lat="41.87624464734205" lon="1.4352686055797774"><ele>748.0</ele><time>2026-03-30T09:30:22Z</time></trkpt><trkpt lat="41.876101916976026" lon="1.435312888849907"><ele>748.0</ele><time>2026-03-30T09:30:23Z</time></trkpt><trkpt lat="41.87594240825146" lon="1.435341762019544"><ele>748.0</ele><time>2026-03-30T09:30:24Z</time></trkpt><trkpt lat="41.87579567510924" lon="1.4353670059635273"><ele>748.0</ele><time>2026-03-30T09:30:25Z</time></trkpt><trkpt lat="41.87565003776115" lon="1.435394291289409"><ele>748.0</ele><time>2026-03-30T09:30:26Z</time></trkpt><trkpt lat="41.87551216220699" lon="1.4354348997093052"><ele>748.0</ele><time>2026-03-30T09:30:27Z</time></trkpt><trkpt lat="41.87537760422195" lon="1.435488534790601"><ele>748.0</ele><time>2026-03-30T09:30:28Z</time></trkpt><trkpt lat="41.875247227072485" lon="1.4355694436774171"><ele>748.0</ele><time>2026-03-30T09:30:29Z</time></trkpt><trkpt lat="41.875132944692744" lon="1.435690720182041"><ele>743.3333333333334</ele><time>2026-03-30T09:30:30Z</time></trkpt><trkpt lat="41.87501045448122" lon="1.4358217442571306"><ele>738.6666666666666</ele><time>2026-03-30T09:30:31Z</time></trkpt><trkpt lat="41.87487439800347" lon="1.435934003618849"><ele>734.0</ele><time>2026-03-30T09:30:32Z</time></trkpt><trkpt lat="41.8747743999644" lon="1.4360905363888743"><ele>734.0</ele><time>2026-03-30T09:30:33Z</time></trkpt><trkpt lat="41.874671101715066" lon="1.4362258746061969"><ele>734.0</ele><time>2026-03-30T09:30:34Z</time></trkpt><trkpt lat="41.87456339944455" lon="1.4363558306916695"><ele>734.0</ele><time>2026-03-30T09:30:35Z</time></trkpt><trkpt lat="41.87445292485927" lon="1.4364729553440312"><ele>734.0</ele><time>2026-03-30T09:30:36Z</time></trkpt><trkpt lat="41.87432516870052" lon="1.4365509349173655"><ele>733.0</ele><time>2026-03-30T09:30:37Z</time></trkpt><trkpt lat="41.87419370881616" lon="1.436642635962641"><ele>732.0</ele><time>2026-03-30T09:30:38Z</time></trkpt><trkpt lat="41.87407471350906" lon="1.4367254072163553"><ele>731.0</ele><time>2026-03-30T09:30:39Z</time></trkpt><trkpt lat="41.873971655200386" lon="1.4367821576751978"><ele>730.0</ele><time>2026-03-30T09:30:40Z</time></trkpt><trkpt lat="41.87388712697236" lon="1.4368051010404894"><ele>730.0</ele><time>2026-03-30T09:30:41Z</time></trkpt><trkpt lat="41.87379758169651" lon="1.4367786268063842"><ele>730.0</ele><time>2026-03-30T09:30:42Z</time></trkpt><trkpt lat="41.873712868305084" lon="1.4366898942270172"><ele>730.0</ele><time>2026-03-30T09:30:43Z</time></trkpt><trkpt lat="41.87366193478818" lon="1.4365678998189229"><ele>730.0</ele><time>2026-03-30T09:30:44Z</time></trkpt><trkpt lat="41.87360986515629" lon="1.4364301421254602"><ele>730.0</ele><time>2026-03-30T09:30:45Z</time></trkpt><trkpt lat="41.87353010159784" lon="1.4363328107163051"><ele>729.0</ele><time>2026-03-30T09:30:46Z</time></trkpt><trkpt lat="41.87344513210466" lon="1.436214606259091"><ele>728.0</ele><time>2026-03-30T09:30:47Z</time></trkpt><trkpt lat="41.873340662336844" lon="1.4361185977652806"><ele>727.0</ele><time>2026-03-30T09:30:48Z</time></trkpt><trkpt lat="41.87326381349733" lon="1.4360299265265386"><ele>726.0</ele><time>2026-03-30T09:30:49Z</time></trkpt><trkpt lat="41.873219197676065" lon="1.4359051677439592"><ele>726.0</ele><time>2026-03-30T09:30:50Z</time></trkpt><trkpt lat="41.8732286866127" lon="1.435746171708616"><ele>726.0</ele><time>2026-03-30T09:30:51Z</time></trkpt><trkpt lat="41.873220504036865" lon="1.435555036402049"><ele>726.0</ele><time>2026-03-30T09:30:52Z</time></trkpt><trkpt lat="41.87321215424865" lon="1.4353599949426137"><ele>726.0</ele><time>2026-03-30T09:30:53Z</time></trkpt><trkpt lat="41.873189855980044" lon="1.435169177331991"><ele>726.25</ele><time>2026-03-30T09:30:54Z</time></trkpt><trkpt lat="41.87318715897384" lon="1.4349852826891443"><ele>726.5</ele><time>2026-03-30T09:30:55Z</time></trkpt><trkpt lat="41.87318620769532" lon="1.4347971821381822"><ele>726.75</ele><time>2026-03-30T09:30:56Z</time></trkpt><trkpt lat="41.87319085827763" lon="1.4346109726362288"><ele>727.0</ele><time>2026-03-30T09:30:57Z</time></trkpt><trkpt lat="41.873198768561224" lon="1.4344321859154117"><ele>726.6</ele><time>2026-03-30T09:30:58Z</time></trkpt><trkpt lat="41.8732087546257" lon="1.4342716453182127"><ele>726.2</ele><time>2026-03-30T09:30:59Z</time></trkpt><trkpt lat="41.87321403501497" lon="1.4341229287961093"><ele>725.8</ele><time>2026-03-30T09:31:00Z</time></trkpt><trkpt lat="41.87320973014173" lon="1.4339842146231736"><ele>725.4</ele><time>2026-03-30T09:31:01Z</time></trkpt><trkpt lat="41.873164883343904" lon="1.4338575308684127"><ele>725.0</ele><time>2026-03-30T09:31:02Z</time></trkpt><trkpt lat="41.87307204703892" lon="1.4337609771120292"><ele>726.0</ele><time>2026-03-30T09:31:03Z</time></trkpt><trkpt lat="41.872947014863705" lon="1.4337226014559226"><ele>727.0</ele><time>2026-03-30T09:31:04Z</time></trkpt><trkpt lat="41.87281875010089" lon="1.433736257615084"><ele>728.0</ele><time>2026-03-30T09:31:05Z</time></trkpt><trkpt lat="41.87268745547699" lon="1.4337781191649417"><ele>729.0</ele><time>2026-03-30T09:31:06Z</time></trkpt><trkpt lat="41.87255529314712" lon="1.433861527097545"><ele>725.0</ele><time>2026-03-30T09:31:07Z</time></trkpt><trkpt lat="41.87241929498193" lon="1.4339739461350152"><ele>721.0</ele><time>2026-03-30T09:31:08Z</time></trkpt><trkpt lat="41.87228839078182" lon="1.4340802307460225"><ele>717.0</ele><time>2026-03-30T09:31:09Z</time></trkpt><trkpt lat="41.872169348586716" lon="1.4341829172340714"><ele>717.0</ele><time>2026-03-30T09:31:10Z</time></trkpt><trkpt lat="41.87206808150281" lon="1.4342971084824434"><ele>717.0</ele><time>2026-03-30T09:31:11Z</time></trkpt><trkpt lat="41.87195977782936" lon="1.434399062106124"><ele>717.0</ele><time>2026-03-30T09:31:12Z</time></trkpt><trkpt lat="41.87186161153359" lon="1.434508084315983"><ele>717.0</ele><time>2026-03-30T09:31:13Z</time></trkpt><trkpt lat="41.87176258666219" lon="1.4346190538892079"><ele>716.0</ele><time>2026-03-30T09:31:14Z</time></trkpt><trkpt lat="41.87166087607834" lon="1.434736454509863"><ele>715.0</ele><time>2026-03-30T09:31:15Z</time></trkpt><trkpt lat="41.871563178255975" lon="1.4348733638523081"><ele>714.0</ele><time>2026-03-30T09:31:16Z</time></trkpt><trkpt lat="41.8714636792431" lon="1.434987628829711"><ele>713.0</ele><time>2026-03-30T09:31:17Z</time></trkpt><trkpt lat="41.87136662748738" lon="1.4350989922520045"><ele>713.0</ele><time>2026-03-30T09:31:18Z</time></trkpt><trkpt lat="41.87126630312576" lon="1.4351729227977947"><ele>713.0</ele><time>2026-03-30T09:31:19Z</time></trkpt><trkpt lat="41.871179308477856" lon="1.435251040824434"><ele>713.0</ele><time>2026-03-30T09:31:20Z</time></trkpt><trkpt lat="41.871103645924066" lon="1.4353388059589196"><ele>713.0</ele><time>2026-03-30T09:31:21Z</time></trkpt><trkpt lat="41.87101860504441" lon="1.4354058679084616"><ele>713.0</ele><time>2026-03-30T09:31:22Z</time></trkpt><trkpt lat="41.87093011964767" lon="1.4354834261382248"><ele>712.0</ele><time>2026-03-30T09:31:23Z</time></trkpt><trkpt lat="41.87083379965819" lon="1.4355758845402125"><ele>711.0</ele><time>2026-03-30T09:31:24Z</time></trkpt><trkpt lat="41.8707458050598" lon="1.435682843759079"><ele>710.0</ele><time>2026-03-30T09:31:25Z</time></trkpt><trkpt lat="41.87066941170727" lon="1.435797406588446"><ele>709.0</ele><time>2026-03-30T09:31:26Z</time></trkpt><trkpt lat="41.87059091022898" lon="1.43590512835181"><ele>709.0</ele><time>2026-03-30T09:31:27Z</time></trkpt><trkpt lat="41.870519968939156" lon="1.4360180778568277"><ele>709.0</ele><time>2026-03-30T09:31:28Z</time></trkpt><trkpt lat="41.870444619143186" lon="1.4361115979521644"><ele>709.0</ele><time>2026-03-30T09:31:29Z</time></trkpt><trkpt lat="41.87037255855959" lon="1.4361766060494516"><ele>709.0</ele><time>2026-03-30T09:31:30Z</time></trkpt><trkpt lat="41.87028845667236" lon="1.4361749635171857"><ele>709.0</ele><time>2026-03-30T09:31:31Z</time></trkpt><trkpt lat="41.87020195991857" lon="1.4361918320705263"><ele>709.0</ele><time>2026-03-30T09:31:32Z</time></trkpt><trkpt lat="41.87014454101412" lon="1.4361307679809672"><ele>709.0</ele><time>2026-03-30T09:31:33Z</time></trkpt><trkpt lat="41.87006296597782" lon="1.4360946313213172"><ele>709.0</ele><time>2026-03-30T09:31:34Z</time></trkpt><trkpt lat="41.869962783886926" lon="1.4360454124029396"><ele>709.0</ele><time>2026-03-30T09:31:35Z</time></trkpt><trkpt lat="41.86983856342197" lon="1.4359807714365591"><ele>709.0</ele><time>2026-03-30T09:31:36Z</time></trkpt><trkpt lat="41.869727783719426" lon="1.4359197450306638"><ele>708.2</ele><time>2026-03-30T09:31:37Z</time></trkpt><trkpt lat="41.86963619828166" lon="1.4358506407845104"><ele>707.4000000000001</ele><time>2026-03-30T09:31:38Z</time></trkpt><trkpt lat="41.8695768577901" lon="1.4357451283076832"><ele>706.6</ele><time>2026-03-30T09:31:39Z</time></trkpt><trkpt lat="41.86957120128396" lon="1.4356015215267468"><ele>705.8</ele><time>2026-03-30T09:31:40Z</time></trkpt><trkpt lat="41.869540162461554" lon="1.4354312584882583"><ele>705.0</ele><time>2026-03-30T09:31:41Z</time></trkpt><trkpt lat="41.86950888618683" lon="1.4352398490827423"><ele>704.75</ele><time>2026-03-30T09:31:42Z</time></trkpt><trkpt lat="41.86947790846004" lon="1.4350495950027131"><ele>704.5</ele><time>2026-03-30T09:31:43Z</time></trkpt><trkpt lat="41.86944942701641" lon="1.4348746722416919"><ele>704.25</ele><time>2026-03-30T09:31:44Z</time></trkpt><trkpt lat="41.869425598861405" lon="1.434712604741509"><ele>704.0</ele><time>2026-03-30T09:31:45Z</time></trkpt><trkpt lat="41.86941370776969" lon="1.4345447642924343"><ele>703.75</ele><time>2026-03-30T09:31:46Z</time></trkpt><trkpt lat="41.869429766240835" lon="1.434356552991334"><ele>703.5</ele><time>2026-03-30T09:31:47Z</time></trkpt><trkpt lat="41.869452444176254" lon="1.434169864792084"><ele>703.25</ele><time>2026-03-30T09:31:48Z</time></trkpt><trkpt lat="41.86945928621547" lon="1.4339788851156614"><ele>703.0</ele><time>2026-03-30T09:31:49Z</time></trkpt><trkpt lat="41.86947803179084" lon="1.4337876542997232"><ele>701.75</ele><time>2026-03-30T09:31:50Z</time></trkpt><trkpt lat="41.86949601496243" lon="1.433603379286581"><ele>700.5</ele><time>2026-03-30T09:31:51Z</time></trkpt><trkpt lat="41.869459293490365" lon="1.4334275990846208"><ele>699.25</ele><time>2026-03-30T09:31:52Z</time></trkpt><trkpt lat="41.86942374389704" lon="1.4332645556508543"><ele>698.0</ele><time>2026-03-30T09:31:53Z</time></trkpt><trkpt lat="41.86940177880749" lon="1.4331158304260447"><ele>698.0</ele><time>2026-03-30T09:31:54Z</time></trkpt><trkpt lat="41.86931983817208" lon="1.4329991902871355"><ele>698.0</ele><time>2026-03-30T09:31:55Z</time></trkpt><trkpt lat="41.86919624584702" lon="1.4329204402664912"><ele>698.0</ele><time>2026-03-30T09:31:56Z</time></trkpt><trkpt lat="41.8690604829518" lon="1.4328867612767804"><ele>698.0</ele><time>2026-03-30T09:31:57Z</time></trkpt><trkpt lat="41.86892625347417" lon="1.432896453695748"><ele>695.75</ele><time>2026-03-30T09:31:58Z</time></trkpt><trkpt lat="41.86879679130868" lon="1.4329749220816885"><ele>693.5</ele><time>2026-03-30T09:31:59Z</time></trkpt><trkpt lat="41.86866751805268" lon="1.4330396494239497"><ele>691.25</ele><time>2026-03-30T09:32:00Z</time></trkpt><trkpt lat="41.86853843754446" lon="1.433116288029826"><ele>689.0</ele><time>2026-03-30T09:32:01Z</time></trkpt><trkpt lat="41.86841061783782" lon="1.4331921091379574"><ele>689.0</ele><time>2026-03-30T09:32:02Z</time></trkpt><trkpt lat="41.868278494339556" lon="1.4332708496696671"><ele>689.0</ele><time>2026-03-30T09:32:03Z</time></trkpt><trkpt lat="41.86815421626578" lon="1.4333449146431338"><ele>689.0</ele><time>2026-03-30T09:32:04Z</time></trkpt><trkpt lat="41.868033470080704" lon="1.4334168747489526"><ele>689.0</ele><time>2026-03-30T09:32:05Z</time></trkpt><trkpt lat="41.867916968631185" lon="1.433484748582335"><ele>689.0</ele><time>2026-03-30T09:32:06Z</time></trkpt><trkpt lat="41.86779116070479" lon="1.4335560370023486"><ele>689.0</ele><time>2026-03-30T09:32:07Z</time></trkpt><trkpt lat="41.86766334135034" lon="1.4336284652232443"><ele>689.0</ele><time>2026-03-30T09:32:08Z</time></trkpt><trkpt lat="41.86753512400237" lon="1.433703103940622"><ele>689.0</ele><time>2026-03-30T09:32:09Z</time></trkpt><trkpt lat="41.86742020625713" lon="1.433817494947416"><ele>686.0</ele><time>2026-03-30T09:32:10Z</time></trkpt><trkpt lat="41.86730196942287" lon="1.4339240857194866"><ele>683.0</ele><time>2026-03-30T09:32:11Z</time></trkpt><trkpt lat="41.86719266828802" lon="1.4340497960259115"><ele>680.0</ele><time>2026-03-30T09:32:12Z</time></trkpt><trkpt lat="41.86707603941576" lon="1.4341459537903967"><ele>677.0</ele><time>2026-03-30T09:32:13Z</time></trkpt><trkpt lat="41.866967173616025" lon="1.4342494256513123"><ele>677.0</ele><time>2026-03-30T09:32:14Z</time></trkpt><trkpt lat="41.86686152504218" lon="1.4343398540380072"><ele>677.0</ele><time>2026-03-30T09:32:15Z</time></trkpt><trkpt lat="41.86675779039944" lon="1.4344270642862622"><ele>677.0</ele><time>2026-03-30T09:32:16Z</time></trkpt><trkpt lat="41.86665805971685" lon="1.4345099899426055"><ele>677.0</ele><time>2026-03-30T09:32:17Z</time></trkpt><trkpt lat="41.8665545887853" lon="1.4345960251523893"><ele>675.25</ele><time>2026-03-30T09:32:18Z</time></trkpt><trkpt lat="41.866460833931434" lon="1.434675592317585"><ele>673.5</ele><time>2026-03-30T09:32:19Z</time></trkpt><trkpt lat="41.86636367314515" lon="1.4347457960167636"><ele>671.75</ele><time>2026-03-30T09:32:20Z</time></trkpt><trkpt lat="41.86625165697494" lon="1.434793048133741"><ele>670.0</ele><time>2026-03-30T09:32:21Z</time></trkpt><trkpt lat="41.86612719385566" lon="1.4348079723620357"><ele>670.0</ele><time>2026-03-30T09:32:22Z</time></trkpt><trkpt lat="41.86600081291849" lon="1.4348131882382174"><ele>670.0</ele><time>2026-03-30T09:32:23Z</time></trkpt><trkpt lat="41.865873205461924" lon="1.4348206350847739"><ele>670.0</ele><time>2026-03-30T09:32:24Z</time></trkpt><trkpt lat="41.86574643277999" lon="1.4348315384983807"><ele>670.0</ele><time>2026-03-30T09:32:25Z</time></trkpt><trkpt lat="41.86563531364388" lon="1.4348201101002165"><ele>670.5</ele><time>2026-03-30T09:32:26Z</time></trkpt><trkpt lat="41.86552939451156" lon="1.43476377709872"><ele>671.0</ele><time>2026-03-30T09:32:27Z</time></trkpt><trkpt lat="41.865421117289" lon="1.4346903514650104"><ele>671.5</ele><time>2026-03-30T09:32:28Z</time></trkpt><trkpt lat="41.86531509363914" lon="1.4346210164994777"><ele>672.0</ele><time>2026-03-30T09:32:29Z</time></trkpt><trkpt lat="41.8652185291551" lon="1.4345552851614078"><ele>671.25</ele><time>2026-03-30T09:32:30Z</time></trkpt><trkpt lat="41.86512428047003" lon="1.434471676568642"><ele>670.5</ele><time>2026-03-30T09:32:31Z</time></trkpt><trkpt lat="41.86503845879105" lon="1.434353371480477"><ele>669.75</ele><time>2026-03-30T09:32:32Z</time></trkpt><trkpt lat="41.86495763629193" lon="1.434222547789336"><ele>669.0</ele><time>2026-03-30T09:32:33Z</time></trkpt><trkpt lat="41.86488258635375" lon="1.434101303728027"><ele>669.0</ele><time>2026-03-30T09:32:34Z</time></trkpt><trkpt lat="41.864805962249626" lon="1.4339854875583447"><ele>669.0</ele><time>2026-03-30T09:32:35Z</time></trkpt><trkpt lat="41.86471635859405" lon="1.433899107453793"><ele>669.0</ele><time>2026-03-30T09:32:36Z</time></trkpt><trkpt lat="41.86460918150907" lon="1.4338667454782472"><ele>669.0</ele><time>2026-03-30T09:32:37Z</time></trkpt><trkpt lat="41.86450761246489" lon="1.433843673613506"><ele>669.0</ele><time>2026-03-30T09:32:38Z</time></trkpt><trkpt lat="41.864392593376294" lon="1.433846991206565"><ele>667.25</ele><time>2026-03-30T09:32:39Z</time></trkpt><trkpt lat="41.864271920752735" lon="1.433886150687203"><ele>665.5</ele><time>2026-03-30T09:32:40Z</time></trkpt><trkpt lat="41.86415758683053" lon="1.43393283718162"><ele>663.75</ele><time>2026-03-30T09:32:41Z</time></trkpt><trkpt lat="41.86406443439971" lon="1.4340102316338845"><ele>662.0</ele><time>2026-03-30T09:32:42Z</time></trkpt><trkpt lat="41.863994535544926" lon="1.434121728993944"><ele>662.0</ele><time>2026-03-30T09:32:43Z</time></trkpt><trkpt lat="41.86395152242902" lon="1.4342543894313982"><ele>662.0</ele><time>2026-03-30T09:32:44Z</time></trkpt><trkpt lat="41.86392075710068" lon="1.4343865755270757"><ele>662.0</ele><time>2026-03-30T09:32:45Z</time></trkpt><trkpt lat="41.86388202567509" lon="1.4345108379809124"><ele>662.0</ele><time>2026-03-30T09:32:46Z</time></trkpt><trkpt lat="41.86383627842052" lon="1.4346290966053492"><ele>662.0</ele><time>2026-03-30T09:32:47Z</time></trkpt><trkpt lat="41.86376703610492" lon="1.4347268287888466"><ele>661.6</ele><time>2026-03-30T09:32:48Z</time></trkpt><trkpt lat="41.863698589565644" lon="1.4348126777756869"><ele>661.2</ele><time>2026-03-30T09:32:49Z</time></trkpt><trkpt lat="41.86360102610321" lon="1.434873133425623"><ele>660.8</ele><time>2026-03-30T09:32:50Z</time></trkpt><trkpt lat="41.86349238877705" lon="1.4349158513755313"><ele>660.4</ele><time>2026-03-30T09:32:51Z</time></trkpt><trkpt lat="41.863395771965465" lon="1.4349017696749522"><ele>660.0</ele><time>2026-03-30T09:32:52Z</time></trkpt><trkpt lat="41.863313134551255" lon="1.4348535359284038"><ele>659.3333333333334</ele><time>2026-03-30T09:32:53Z</time></trkpt><trkpt lat="41.86325956904824" lon="1.4347673946092419"><ele>658.6666666666666</ele><time>2026-03-30T09:32:54Z</time></trkpt><trkpt lat="41.863254863134976" lon="1.4346548126929777"><ele>658.0</ele><time>2026-03-30T09:32:55Z</time></trkpt><trkpt lat="41.8632472928373" lon="1.4345372494440607"><ele>657.3333333333333</ele><time>2026-03-30T09:32:56Z</time></trkpt><trkpt lat="41.86323907043589" lon="1.4344255795611225"><ele>656.6666666666666</ele><time>2026-03-30T09:32:57Z</time></trkpt><trkpt lat="41.8632187821414" lon="1.4343173922604915"><ele>656.0</ele><time>2026-03-30T09:32:58Z</time></trkpt><trkpt lat="41.86315594151626" lon="1.4342289802796697"><ele>656.0</ele><time>2026-03-30T09:32:59Z</time></trkpt><trkpt lat="41.863041561031814" lon="1.4341927701652752"><ele>656.0</ele><time>2026-03-30T09:33:00Z</time></trkpt><trkpt lat="41.86290984133706" lon="1.434218975096107"><ele>656.0</ele><time>2026-03-30T09:33:01Z</time></trkpt><trkpt lat="41.862777684649224" lon="1.4342605298311695"><ele>656.0</ele><time>2026-03-30T09:33:02Z</time></trkpt><trkpt lat="41.8626449023587" lon="1.434316431724246"><ele>655.0</ele><time>2026-03-30T09:33:03Z</time></trkpt><trkpt lat="41.862516460681185" lon="1.4343738643405683"><ele>654.0</ele><time>2026-03-30T09:33:04Z</time></trkpt><trkpt lat="41.8623869729069" lon="1.434432096927481"><ele>653.0</ele><time>2026-03-30T09:33:05Z</time></trkpt><trkpt lat="41.86226326905753" lon="1.4344877283944437"><ele>652.0</ele><time>2026-03-30T09:33:06Z</time></trkpt><trkpt lat="41.86213963538707" lon="1.4345452019937601"><ele>652.0</ele><time>2026-03-30T09:33:07Z</time></trkpt><trkpt lat="41.862037641575505" lon="1.4345891187022577"><ele>652.0</ele><time>2026-03-30T09:33:08Z</time></trkpt><trkpt lat="41.86195387898576" lon="1.4346093616314886"><ele>652.0</ele><time>2026-03-30T09:33:09Z</time></trkpt><trkpt lat="41.86188486237597" lon="1.4345894345033963"><ele>652.0</ele><time>2026-03-30T09:33:10Z</time></trkpt><trkpt lat="41.861843116167165" lon="1.434507685921275"><ele>652.0</ele><time>2026-03-30T09:33:11Z</time></trkpt><trkpt lat="41.8618267652391" lon="1.4344048179321216"><ele>652.0</ele><time>2026-03-30T09:33:12Z</time></trkpt><trkpt lat="41.861853100180895" lon="1.434285542222275"><ele>652.0</ele><time>2026-03-30T09:33:13Z</time></trkpt><trkpt lat="41.86184344294028" lon="1.4341492966608465"><ele>652.0</ele><time>2026-03-30T09:33:14Z</time></trkpt><trkpt lat="41.8618477766447" lon="1.434007744127833"><ele>652.0</ele><time>2026-03-30T09:33:15Z</time></trkpt><trkpt lat="41.86184415429836" lon="1.433869515288721"><ele>652.0</ele><time>2026-03-30T09:33:16Z</time></trkpt><trkpt lat="41.86184444213392" lon="1.4337341678973659"><ele>652.0</ele><time>2026-03-30T09:33:17Z</time></trkpt><trkpt lat="41.861780380520365" lon="1.4336031660044364"><ele>651.0</ele><time>2026-03-30T09:33:18Z</time></trkpt><trkpt lat="41.861727600050656" lon="1.4334678978390902"><ele>650.0</ele><time>2026-03-30T09:33:19Z</time></trkpt><trkpt lat="41.86166563050016" lon="1.433369952821796"><ele>649.0</ele><time>2026-03-30T09:33:20Z</time></trkpt><trkpt lat="41.86159365282948" lon="1.4332820440370746"><ele>648.0</ele><time>2026-03-30T09:33:21Z</time></trkpt><trkpt lat="41.86151587411318" lon="1.433228510840094"><ele>647.0</ele><time>2026-03-30T09:33:22Z</time></trkpt><trkpt lat="41.86140675514792" lon="1.4332334324981981"><ele>647.0</ele><time>2026-03-30T09:33:23Z</time></trkpt><trkpt lat="41.86130582916165" lon="1.4333299223551834"><ele>647.0</ele><time>2026-03-30T09:33:24Z</time></trkpt><trkpt lat="41.861201447692686" lon="1.4334443462041442"><ele>647.0</ele><time>2026-03-30T09:33:25Z</time></trkpt><trkpt lat="41.8610831978127" lon="1.4335478455356112"><ele>647.0</ele><time>2026-03-30T09:33:26Z</time></trkpt><trkpt lat="41.86097100518924" lon="1.4336641159664805"><ele>646.25</ele><time>2026-03-30T09:33:27Z</time></trkpt><trkpt lat="41.86086201881101" lon="1.433781195361239"><ele>645.5</ele><time>2026-03-30T09:33:28Z</time></trkpt><trkpt lat="41.86076167508258" lon="1.4338889916309374"><ele>644.75</ele><time>2026-03-30T09:33:29Z</time></trkpt><trkpt lat="41.86065711357919" lon="1.4339619253588232"><ele>644.0</ele><time>2026-03-30T09:33:30Z</time></trkpt><trkpt lat="41.860543954434206" lon="1.4340293709448229"><ele>642.8000000000001</ele><time>2026-03-30T09:33:31Z</time></trkpt><trkpt lat="41.86043485973424" lon="1.4340883780562843"><ele>641.6</ele><time>2026-03-30T09:33:32Z</time></trkpt><trkpt lat="41.860331330746995" lon="1.434134968773074"><ele>640.4</ele><time>2026-03-30T09:33:33Z</time></trkpt><trkpt lat="41.86023476168422" lon="1.4341589856781496"><ele>639.2</ele><time>2026-03-30T09:33:34Z</time></trkpt><trkpt lat="41.86014628609519" lon="1.4341521713238206"><ele>638.0</ele><time>2026-03-30T09:33:35Z</time></trkpt><trkpt lat="41.86004945387246" lon="1.4341388657973586"><ele>637.25</ele><time>2026-03-30T09:33:36Z</time></trkpt><trkpt lat="41.859926739942615" lon="1.4341236907390158"><ele>636.5</ele><time>2026-03-30T09:33:37Z</time></trkpt><trkpt lat="41.85979556337168" lon="1.4341062235753534"><ele>635.75</ele><time>2026-03-30T09:33:38Z</time></trkpt><trkpt lat="41.85966442142048" lon="1.4340827265029505"><ele>635.0</ele><time>2026-03-30T09:33:39Z</time></trkpt><trkpt lat="41.859537986045154" lon="1.434042718754049"><ele>635.0</ele><time>2026-03-30T09:33:40Z</time></trkpt><trkpt lat="41.85942942503384" lon="1.4339770566138639"><ele>635.0</ele><time>2026-03-30T09:33:41Z</time></trkpt><trkpt lat="41.85932003978127" lon="1.4339182046616141"><ele>635.0</ele><time>2026-03-30T09:33:42Z</time></trkpt><trkpt lat="41.85920822679742" lon="1.4338686216111536"><ele>635.0</ele><time>2026-03-30T09:33:43Z</time></trkpt><trkpt lat="41.859085377522355" lon="1.4338679136109715"><ele>633.5</ele><time>2026-03-30T09:33:44Z</time></trkpt><trkpt lat="41.85897393604597" lon="1.4339705851956859"><ele>632.0</ele><time>2026-03-30T09:33:45Z</time></trkpt><trkpt lat="41.85888358861491" lon="1.4341057601766236"><ele>630.5</ele><time>2026-03-30T09:33:46Z</time></trkpt><trkpt lat="41.85878543428546" lon="1.4342607522317514"><ele>629.0</ele><time>2026-03-30T09:33:47Z</time></trkpt><trkpt lat="41.85866884577484" lon="1.4343870200889153"><ele>629.0</ele><time>2026-03-30T09:33:48Z</time></trkpt><trkpt lat="41.85857619787768" lon="1.434507125841784"><ele>629.0</ele><time>2026-03-30T09:33:49Z</time></trkpt><trkpt lat="41.85848541510692" lon="1.4346216956978453"><ele>629.0</ele><time>2026-03-30T09:33:50Z</time></trkpt><trkpt lat="41.85839848290213" lon="1.4347272199675423"><ele>629.0</ele><time>2026-03-30T09:33:51Z</time></trkpt><trkpt lat="41.85831205186247" lon="1.4348174841252506"><ele>627.75</ele><time>2026-03-30T09:33:52Z</time></trkpt><trkpt lat="41.85822008907232" lon="1.4348825433676295"><ele>626.5</ele><time>2026-03-30T09:33:53Z</time></trkpt><trkpt lat="41.858105977939" lon="1.4348853744317074"><ele>625.25</ele><time>2026-03-30T09:33:54Z</time></trkpt><trkpt lat="41.85797092619925" lon="1.434878018830527"><ele>624.0</ele><time>2026-03-30T09:33:55Z</time></trkpt><trkpt lat="41.85782011250058" lon="1.4348739153986212"><ele>624.0</ele><time>2026-03-30T09:33:56Z</time></trkpt><trkpt lat="41.857685910084726" lon="1.4348718218806886"><ele>624.0</ele><time>2026-03-30T09:33:57Z</time></trkpt><trkpt lat="41.857563066411146" lon="1.4348742723133687"><ele>624.0</ele><time>2026-03-30T09:33:58Z</time></trkpt><trkpt lat="41.85744974971908" lon="1.4348848000006813"><ele>624.0</ele><time>2026-03-30T09:33:59Z</time></trkpt><trkpt lat="41.85734752374749" lon="1.434929628429181"><ele>623.25</ele><time>2026-03-30T09:34:00Z</time></trkpt><trkpt lat="41.85727796892151" lon="1.435086857554848"><ele>622.5</ele><time>2026-03-30T09:34:01Z</time></trkpt><trkpt lat="41.857212711073075" lon="1.4352472439628892"><ele>621.75</ele><time>2026-03-30T09:34:02Z</time></trkpt><trkpt lat="41.85713898831275" lon="1.4353840069524961"><ele>621.0</ele><time>2026-03-30T09:34:03Z</time></trkpt><trkpt lat="41.857049993032525" lon="1.4354815731976869"><ele>620.5</ele><time>2026-03-30T09:34:04Z</time></trkpt><trkpt lat="41.856977321352616" lon="1.4355654390486672"><ele>620.0</ele><time>2026-03-30T09:34:05Z</time></trkpt><trkpt lat="41.85691131295489" lon="1.4356223112046622"><ele>619.5</ele><time>2026-03-30T09:34:06Z</time></trkpt><trkpt lat="41.85682522376689" lon="1.4355800218644668"><ele>619.0</ele><time>2026-03-30T09:34:07Z</time></trkpt><trkpt lat="41.85677189046492" lon="1.4354972808372504"><ele>618.5</ele><time>2026-03-30T09:34:08Z</time></trkpt><trkpt lat="41.85676964495795" lon="1.4353940806415981"><ele>618.0</ele><time>2026-03-30T09:34:09Z</time></trkpt><trkpt lat="41.85677987915383" lon="1.435270035863361"><ele>618.0</ele><time>2026-03-30T09:34:10Z</time></trkpt><trkpt lat="41.85675174915915" lon="1.4350804730953803"><ele>618.0</ele><time>2026-03-30T09:34:11Z</time></trkpt><trkpt lat="41.856706385137805" lon="1.4349143895465446"><ele>618.0</ele><time>2026-03-30T09:34:12Z</time></trkpt><trkpt lat="41.85661597394216" lon="1.434795119178334"><ele>618.0</ele><time>2026-03-30T09:34:13Z</time></trkpt><trkpt lat="41.85648743383247" lon="1.4346823800877782"><ele>618.75</ele><time>2026-03-30T09:34:14Z</time></trkpt><trkpt lat="41.85636223959103" lon="1.4345518183715065"><ele>619.5</ele><time>2026-03-30T09:34:15Z</time></trkpt><trkpt lat="41.85623706050822" lon="1.4344561898918213"><ele>620.25</ele><time>2026-03-30T09:34:16Z</time></trkpt><trkpt lat="41.85611159339634" lon="1.4343871949535876"><ele>621.0</ele><time>2026-03-30T09:34:17Z</time></trkpt><trkpt lat="41.85597851187744" lon="1.4343748449889617"><ele>618.75</ele><time>2026-03-30T09:34:18Z</time></trkpt><trkpt lat="41.85585974532102" lon="1.4343191040143592"><ele>616.5</ele><time>2026-03-30T09:34:19Z</time></trkpt><trkpt lat="41.85574913394113" lon="1.4342476250278287"><ele>614.25</ele><time>2026-03-30T09:34:20Z</time></trkpt><trkpt lat="41.855640264423684" lon="1.4341581369466156"><ele>612.0</ele><time>2026-03-30T09:34:21Z</time></trkpt><trkpt lat="41.85555644175638" lon="1.4340695236107754"><ele>612.0</ele><time>2026-03-30T09:34:22Z</time></trkpt><trkpt lat="41.855494076293674" lon="1.433951199981727"><ele>612.0</ele><time>2026-03-30T09:34:23Z</time></trkpt><trkpt lat="41.85544362888566" lon="1.4337847118460756"><ele>612.0</ele><time>2026-03-30T09:34:24Z</time></trkpt><trkpt lat="41.85534926332151" lon="1.4336425310292977"><ele>612.0</ele><time>2026-03-30T09:34:25Z</time></trkpt><trkpt lat="41.855237481474845" lon="1.4335028134780239"><ele>611.5</ele><time>2026-03-30T09:34:26Z</time></trkpt><trkpt lat="41.85514059335118" lon="1.433358271617909"><ele>611.0</ele><time>2026-03-30T09:34:27Z</time></trkpt><trkpt lat="41.85503545185912" lon="1.4332389752179966"><ele>610.5</ele><time>2026-03-30T09:34:28Z</time></trkpt><trkpt lat="41.85493279206904" lon="1.4331133690063216"><ele>610.0</ele><time>2026-03-30T09:34:29Z</time></trkpt><trkpt lat="41.85482657165904" lon="1.432983407591464"><ele>607.75</ele><time>2026-03-30T09:34:30Z</time></trkpt><trkpt lat="41.85472535546069" lon="1.4328595676218623"><ele>605.5</ele><time>2026-03-30T09:34:31Z</time></trkpt><trkpt lat="41.854625516932124" lon="1.4327374133483604"><ele>603.25</ele><time>2026-03-30T09:34:32Z</time></trkpt><trkpt lat="41.8545310507171" lon="1.4326091652191337"><ele>601.0</ele><time>2026-03-30T09:34:33Z</time></trkpt><trkpt lat="41.854465230681285" lon="1.4324756081874288"><ele>601.0</ele><time>2026-03-30T09:34:34Z</time></trkpt><trkpt lat="41.854414082038296" lon="1.4323584607791633"><ele>601.0</ele><time>2026-03-30T09:34:35Z</time></trkpt><trkpt lat="41.85445718994389" lon="1.4322041107694672"><ele>601.0</ele><time>2026-03-30T09:34:36Z</time></trkpt><trkpt lat="41.85447205109432" lon="1.4320251413670542"><ele>601.0</ele><time>2026-03-30T09:34:37Z</time></trkpt><trkpt lat="41.85448818229413" lon="1.4318267110011313"><ele>601.0</ele><time>2026-03-30T09:34:38Z</time></trkpt><trkpt lat="41.85449693875587" lon="1.4316317891135033"><ele>601.0</ele><time>2026-03-30T09:34:39Z</time></trkpt><trkpt lat="41.85450176365761" lon="1.4314428075545247"><ele>601.0</ele><time>2026-03-30T09:34:40Z</time></trkpt><trkpt lat="41.85449911840742" lon="1.431258015568625"><ele>601.0</ele><time>2026-03-30T09:34:41Z</time></trkpt><trkpt lat="41.85448627641845" lon="1.4310713063330165"><ele>599.25</ele><time>2026-03-30T09:34:42Z</time></trkpt><trkpt lat="41.85449785456471" lon="1.430885815145443"><ele>597.5</ele><time>2026-03-30T09:34:43Z</time></trkpt><trkpt lat="41.85451516599379" lon="1.4307087303920674"><ele>595.75</ele><time>2026-03-30T09:34:44Z</time></trkpt><trkpt lat="41.854549637748526" lon="1.4305495739265381"><ele>594.0</ele><time>2026-03-30T09:34:45Z</time></trkpt><trkpt lat="41.85466556670678" lon="1.4304491820297824"><ele>592.2</ele><time>2026-03-30T09:34:46Z</time></trkpt><trkpt lat="41.854773141805055" lon="1.430364525371472"><ele>590.4</ele><time>2026-03-30T09:34:47Z</time></trkpt><trkpt lat="41.85486281165162" lon="1.4302751820966366"><ele>588.6</ele><time>2026-03-30T09:34:48Z</time></trkpt><trkpt lat="41.85494604057492" lon="1.430182419905421"><ele>586.8</ele><time>2026-03-30T09:34:49Z</time></trkpt><trkpt lat="41.85501313061119" lon="1.4300849956387995"><ele>585.0</ele><time>2026-03-30T09:34:50Z</time></trkpt><trkpt lat="41.85509196660134" lon="1.4299999503821725"><ele>586.2</ele><time>2026-03-30T09:34:51Z</time></trkpt><trkpt lat="41.855179734696456" lon="1.429931012272077"><ele>587.4</ele><time>2026-03-30T09:34:52Z</time></trkpt><trkpt lat="41.85527025314444" lon="1.4298779442286529"><ele>588.6</ele><time>2026-03-30T09:34:53Z</time></trkpt><trkpt lat="41.85536676220981" lon="1.4298256720064024"><ele>589.8</ele><time>2026-03-30T09:34:54Z</time></trkpt><trkpt lat="41.85545570662048" lon="1.4297675930479068"><ele>591.0</ele><time>2026-03-30T09:34:55Z</time></trkpt><trkpt lat="41.8555305866204" lon="1.4296911186237582"><ele>590.8</ele><time>2026-03-30T09:34:56Z</time></trkpt><trkpt lat="41.85556611425161" lon="1.4295801126932897"><ele>590.6</ele><time>2026-03-30T09:34:57Z</time></trkpt><trkpt lat="41.85554033377386" lon="1.4294611792233611"><ele>590.4</ele><time>2026-03-30T09:34:58Z</time></trkpt><trkpt lat="41.85547555725443" lon="1.4293550799129513"><ele>590.2</ele><time>2026-03-30T09:34:59Z</time></trkpt><trkpt lat="41.855384986474675" lon="1.4293126639603422"><ele>590.0</ele><time>2026-03-30T09:35:00Z</time></trkpt><trkpt lat="41.85527250985995" lon="1.4293198768507933"><ele>590.0</ele><time>2026-03-30T09:35:01Z</time></trkpt><trkpt lat="41.85513459110284" lon="1.4292469813897433"><ele>590.0</ele><time>2026-03-30T09:35:02Z</time></trkpt><trkpt lat="41.85500698562009" lon="1.4291330395214163"><ele>590.0</ele><time>2026-03-30T09:35:03Z</time></trkpt><trkpt lat="41.85487004903403" lon="1.4290345823545147"><ele>587.5</ele><time>2026-03-30T09:35:04Z</time></trkpt><trkpt lat="41.85472714878228" lon="1.4289873993887081"><ele>585.0</ele><time>2026-03-30T09:35:05Z</time></trkpt><trkpt lat="41.85459487037504" lon="1.4289658208482172"><ele>582.5</ele><time>2026-03-30T09:35:06Z</time></trkpt><trkpt lat="41.854450907826305" lon="1.428971325229491"><ele>580.0</ele><time>2026-03-30T09:35:07Z</time></trkpt><trkpt lat="41.854314226108386" lon="1.428961604923841"><ele>578.25</ele><time>2026-03-30T09:35:08Z</time></trkpt><trkpt lat="41.85418050434311" lon="1.4289657359108916"><ele>576.5</ele><time>2026-03-30T09:35:09Z</time></trkpt><trkpt lat="41.85404714228415" lon="1.4289694665195574"><ele>574.75</ele><time>2026-03-30T09:35:10Z</time></trkpt><trkpt lat="41.85391107083813" lon="1.4289810010257007"><ele>573.0</ele><time>2026-03-30T09:35:11Z</time></trkpt><trkpt lat="41.85378101883791" lon="1.4289862749203888"><ele>573.0</ele><time>2026-03-30T09:35:12Z</time></trkpt><trkpt lat="41.85365695403074" lon="1.4289537260279508"><ele>573.0</ele><time>2026-03-30T09:35:13Z</time></trkpt><trkpt lat="41.8535444842487" lon="1.4289082177770691"><ele>573.0</ele><time>2026-03-30T09:35:14Z</time></trkpt><trkpt lat="41.853431868485636" lon="1.428825977176306"><ele>573.0</ele><time>2026-03-30T09:35:15Z</time></trkpt><trkpt lat="41.85331553982557" lon="1.4287172444533656"><ele>572.0</ele><time>2026-03-30T09:35:16Z</time></trkpt><trkpt lat="41.85319750200092" lon="1.4286073114847275"><ele>571.0</ele><time>2026-03-30T09:35:17Z</time></trkpt><trkpt lat="41.85307823908247" lon="1.4285009933653974"><ele>570.0</ele><time>2026-03-30T09:35:18Z</time></trkpt><trkpt lat="41.85296832751762" lon="1.42840302252269"><ele>569.0</ele><time>2026-03-30T09:35:19Z</time></trkpt><trkpt lat="41.85286343728679" lon="1.4283045994630903"><ele>569.0</ele><time>2026-03-30T09:35:20Z</time></trkpt><trkpt lat="41.852749395936996" lon="1.4282431335574823"><ele>569.0</ele><time>2026-03-30T09:35:21Z</time></trkpt><trkpt lat="41.85263911257994" lon="1.4282025014119848"><ele>569.0</ele><time>2026-03-30T09:35:22Z</time></trkpt><trkpt lat="41.85250881492101" lon="1.4282245370482802"><ele>569.0</ele><time>2026-03-30T09:35:23Z</time></trkpt><trkpt lat="41.8523741958615" lon="1.4282795068361651"><ele>567.0</ele><time>2026-03-30T09:35:24Z</time></trkpt><trkpt lat="41.85223830355792" lon="1.4283364192246522"><ele>565.0</ele><time>2026-03-30T09:35:25Z</time></trkpt><trkpt lat="41.852112042864064" lon="1.4283791758610087"><ele>563.0</ele><time>2026-03-30T09:35:26Z</time></trkpt><trkpt lat="41.85198715234083" lon="1.428400161170308"><ele>561.0</ele><time>2026-03-30T09:35:27Z</time></trkpt><trkpt lat="41.85185666605764" lon="1.4283579430037436"><ele>558.75</ele><time>2026-03-30T09:35:28Z</time></trkpt><trkpt lat="41.85173870994782" lon="1.4283072383133568"><ele>556.5</ele><time>2026-03-30T09:35:29Z</time></trkpt><trkpt lat="41.85164240922993" lon="1.428227783193522"><ele>554.25</ele><time>2026-03-30T09:35:30Z</time></trkpt><trkpt lat="41.85155548360457" lon="1.428122792175714"><ele>552.0</ele><time>2026-03-30T09:35:31Z</time></trkpt><trkpt lat="41.85148691196862" lon="1.4280154132151233"><ele>552.2</ele><time>2026-03-30T09:35:32Z</time></trkpt><trkpt lat="41.85145951573362" lon="1.4279033768469334"><ele>552.4000000000001</ele><time>2026-03-30T09:35:33Z</time></trkpt><trkpt lat="41.85148581418474" lon="1.4278024171328263"><ele>552.5999999999999</ele><time>2026-03-30T09:35:34Z</time></trkpt><trkpt lat="41.851553280541715" lon="1.4277029086464283"><ele>552.8</ele><time>2026-03-30T09:35:35Z</time></trkpt><trkpt lat="41.851594307654985" lon="1.4275756574409386"><ele>553.0</ele><time>2026-03-30T09:35:36Z</time></trkpt><trkpt lat="41.85164437471355" lon="1.4274505867842018"><ele>553.0</ele><time>2026-03-30T09:35:37Z</time></trkpt><trkpt lat="41.85169811058767" lon="1.4273342485753084"><ele>553.0</ele><time>2026-03-30T09:35:38Z</time></trkpt><trkpt lat="41.85177482286506" lon="1.427238650796806"><ele>553.0</ele><time>2026-03-30T09:35:39Z</time></trkpt><trkpt lat="41.8518837904176" lon="1.4271845379003147"><ele>553.0</ele><time>2026-03-30T09:35:40Z</time></trkpt><trkpt lat="41.85198012991632" lon="1.4271013722645025"><ele>553.0</ele><time>2026-03-30T09:35:41Z</time></trkpt><trkpt lat="41.85206991767417" lon="1.4270347744514928"><ele>554.8</ele><time>2026-03-30T09:35:42Z</time></trkpt><trkpt lat="41.85213240376912" lon="1.4269437039055024"><ele>556.5999999999999</ele><time>2026-03-30T09:35:43Z</time></trkpt><trkpt lat="41.85217220875718" lon="1.426825166585916"><ele>558.4000000000001</ele><time>2026-03-30T09:35:44Z</time></trkpt><trkpt lat="41.85216689833806" lon="1.426700175391514"><ele>560.2</ele><time>2026-03-30T09:35:45Z</time></trkpt><trkpt lat="41.85211693992326" lon="1.4265862081720755"><ele>562.0</ele><time>2026-03-30T09:35:46Z</time></trkpt><trkpt lat="41.8520445185224" lon="1.4264965754086956"><ele>562.0</ele><time>2026-03-30T09:35:47Z</time></trkpt><trkpt lat="41.85193230031726" lon="1.4264924260370473"><ele>562.0</ele><time>2026-03-30T09:35:48Z</time></trkpt><trkpt lat="41.85182793398303" lon="1.426514383447913"><ele>562.0</ele><time>2026-03-30T09:35:49Z</time></trkpt><trkpt lat="41.85169442300952" lon="1.4265713854246385"><ele>562.0</ele><time>2026-03-30T09:35:50Z</time></trkpt><trkpt lat="41.851543996435204" lon="1.42663253117688"><ele>559.25</ele><time>2026-03-30T09:35:51Z</time></trkpt><trkpt lat="41.851406449715206" lon="1.426673634318439"><ele>556.5</ele><time>2026-03-30T09:35:52Z</time></trkpt><trkpt lat="41.85127846000166" lon="1.426716619246034"><ele>553.75</ele><time>2026-03-30T09:35:53Z</time></trkpt><trkpt lat="41.851152255479434" lon="1.4267531399043796"><ele>551.0</ele><time>2026-03-30T09:35:54Z</time></trkpt><trkpt lat="41.85102947966548" lon="1.4267906024722865"><ele>550.5</ele><time>2026-03-30T09:35:55Z</time></trkpt><trkpt lat="41.85090924927714" lon="1.4268219400980213"><ele>550.0</ele><time>2026-03-30T09:35:56Z</time></trkpt><trkpt lat="41.85079086035197" lon="1.4268318773931121"><ele>549.5</ele><time>2026-03-30T09:35:57Z</time></trkpt><trkpt lat="41.85068242045791" lon="1.4268702536129831"><ele>549.0</ele><time>2026-03-30T09:35:58Z</time></trkpt><trkpt lat="41.85056297492566" lon="1.4268414814364752"><ele>549.0</ele><time>2026-03-30T09:35:59Z</time></trkpt><trkpt lat="41.850440713098294" lon="1.42680116842453"><ele>549.0</ele><time>2026-03-30T09:36:00Z</time></trkpt><trkpt lat="41.8503092336914" lon="1.4267474879824364"><ele>549.0</ele><time>2026-03-30T09:36:01Z</time></trkpt><trkpt lat="41.85017443195075" lon="1.426695193005799"><ele>549.0</ele><time>2026-03-30T09:36:02Z</time></trkpt><trkpt lat="41.85005002674695" lon="1.4266292564420746"><ele>547.75</ele><time>2026-03-30T09:36:03Z</time></trkpt><trkpt lat="41.84994152735473" lon="1.4265371830322375"><ele>546.5</ele><time>2026-03-30T09:36:04Z</time></trkpt><trkpt lat="41.84984138910597" lon="1.4264272301355225"><ele>545.25</ele><time>2026-03-30T09:36:05Z</time></trkpt><trkpt lat="41.849736973783095" lon="1.4263183761845142"><ele>544.0</ele><time>2026-03-30T09:36:06Z</time></trkpt><trkpt lat="41.84961544446572" lon="1.4262382222082537"><ele>544.0</ele><time>2026-03-30T09:36:07Z</time></trkpt><trkpt lat="41.84948658533876" lon="1.426166306423853"><ele>544.0</ele><time>2026-03-30T09:36:08Z</time></trkpt><trkpt lat="41.84935158931503" lon="1.4261031440969802"><ele>544.0</ele><time>2026-03-30T09:36:09Z</time></trkpt><trkpt lat="41.84923426663104" lon="1.426001750421174"><ele>544.0</ele><time>2026-03-30T09:36:10Z</time></trkpt><trkpt lat="41.84910983904663" lon="1.4259148514150024"><ele>541.5</ele><time>2026-03-30T09:36:11Z</time></trkpt><trkpt lat="41.84897311616988" lon="1.425841101710408"><ele>539.0</ele><time>2026-03-30T09:36:12Z</time></trkpt><trkpt lat="41.848846790537266" lon="1.4257499346019404"><ele>536.5</ele><time>2026-03-30T09:36:13Z</time></trkpt><trkpt lat="41.8487333389513" lon="1.4256329224854785"><ele>534.0</ele><time>2026-03-30T09:36:14Z</time></trkpt><trkpt lat="41.84861505735942" lon="1.4255209424272623"><ele>533.0</ele><time>2026-03-30T09:36:15Z</time></trkpt><trkpt lat="41.848501768414806" lon="1.4253975765341522"><ele>532.0</ele><time>2026-03-30T09:36:16Z</time></trkpt><trkpt lat="41.84838796731383" lon="1.4252707262994937"><ele>531.0</ele><time>2026-03-30T09:36:17Z</time></trkpt><trkpt lat="41.84827985649003" lon="1.4251552714455713"><ele>530.0</ele><time>2026-03-30T09:36:18Z</time></trkpt><trkpt lat="41.848164516186515" lon="1.4250648834862623"><ele>530.0</ele><time>2026-03-30T09:36:19Z</time></trkpt><trkpt lat="41.84804888145065" lon="1.4249955844986995"><ele>530.0</ele><time>2026-03-30T09:36:20Z</time></trkpt><trkpt lat="41.847924807509585" lon="1.4249669998026595"><ele>530.0</ele><time>2026-03-30T09:36:21Z</time></trkpt><trkpt lat="41.84781326787323" lon="1.424960421682677"><ele>530.0</ele><time>2026-03-30T09:36:22Z</time></trkpt><trkpt lat="41.8477217290675" lon="1.4249473194608637"><ele>530.0</ele><time>2026-03-30T09:36:23Z</time></trkpt><trkpt lat="41.84765331974482" lon="1.4248955500779619"><ele>530.0</ele><time>2026-03-30T09:36:24Z</time></trkpt><trkpt lat="41.847616659589825" lon="1.4247893620753618"><ele>530.0</ele><time>2026-03-30T09:36:25Z</time></trkpt><trkpt lat="41.84766328676014" lon="1.4246796505959063"><ele>530.0</ele><time>2026-03-30T09:36:26Z</time></trkpt><trkpt lat="41.84767567622482" lon="1.424579717868988"><ele>530.0</ele><time>2026-03-30T09:36:27Z</time></trkpt><trkpt lat="41.847666601607536" lon="1.424468394826398"><ele>530.0</ele><time>2026-03-30T09:36:28Z</time></trkpt><trkpt lat="41.84765426901329" lon="1.4243656369894897"><ele>529.0</ele><time>2026-03-30T09:36:29Z</time></trkpt><trkpt lat="41.84755611853842" lon="1.424250858337269"><ele>528.0</ele><time>2026-03-30T09:36:31Z</time></trkpt><trkpt lat="41.84747967256745" lon="1.4242403042767784"><ele>527.0</ele><time>2026-03-30T09:36:32Z</time></trkpt><trkpt lat="41.84739994016054" lon="1.4242805254480218"><ele>526.0</ele><time>2026-03-30T09:36:33Z</time></trkpt><trkpt lat="41.84732720748089" lon="1.424358902967029"><ele>525.0</ele><time>2026-03-30T09:36:34Z</time></trkpt><trkpt lat="41.84728382219036" lon="1.424474314525376"><ele>525.0</ele><time>2026-03-30T09:36:35Z</time></trkpt><trkpt lat="41.84726313952314" lon="1.424612482544015"><ele>525.0</ele><time>2026-03-30T09:36:36Z</time></trkpt><trkpt lat="41.84725341763728" lon="1.4247573775165754"><ele>525.0</ele><time>2026-03-30T09:36:37Z</time></trkpt><trkpt lat="41.8472294424703" lon="1.424913402535362"><ele>525.0</ele><time>2026-03-30T09:36:38Z</time></trkpt><trkpt lat="41.847159423996324" lon="1.4250256487565935"><ele>525.0</ele><time>2026-03-30T09:36:39Z</time></trkpt><trkpt lat="41.84707197182461" lon="1.4250565393482841"><ele>524.8</ele><time>2026-03-30T09:36:40Z</time></trkpt><trkpt lat="41.84698341800174" lon="1.4250813562342473"><ele>524.6</ele><time>2026-03-30T09:36:41Z</time></trkpt><trkpt lat="41.846882305707126" lon="1.4250714281504946"><ele>524.4</ele><time>2026-03-30T09:36:42Z</time></trkpt><trkpt lat="41.846788398664415" lon="1.4250386460398201"><ele>524.2</ele><time>2026-03-30T09:36:43Z</time></trkpt><trkpt lat="41.84670155210339" lon="1.4249750036810682"><ele>524.0</ele><time>2026-03-30T09:36:44Z</time></trkpt><trkpt lat="41.84658421519715" lon="1.4248899107661739"><ele>523.5</ele><time>2026-03-30T09:36:45Z</time></trkpt><trkpt lat="41.846464282107476" lon="1.4248093554940051"><ele>523.0</ele><time>2026-03-30T09:36:46Z</time></trkpt><trkpt lat="41.846342106960705" lon="1.4247802971712917"><ele>522.5</ele><time>2026-03-30T09:36:47Z</time></trkpt><trkpt lat="41.84622225352292" lon="1.424776236059519"><ele>522.0</ele><time>2026-03-30T09:36:48Z</time></trkpt><trkpt lat="41.84609057806184" lon="1.4248095566791084"><ele>521.25</ele><time>2026-03-30T09:36:49Z</time></trkpt><trkpt lat="41.84595617182264" lon="1.4248529039571771"><ele>520.5</ele><time>2026-03-30T09:36:50Z</time></trkpt><trkpt lat="41.845815693704814" lon="1.4248662373755843"><ele>519.75</ele><time>2026-03-30T09:36:51Z</time></trkpt><trkpt lat="41.84568746138818" lon="1.4249142142762896"><ele>519.0</ele><time>2026-03-30T09:36:52Z</time></trkpt><trkpt lat="41.84558135480614" lon="1.425001789701949"><ele>519.0</ele><time>2026-03-30T09:36:53Z</time></trkpt><trkpt lat="41.84548111255887" lon="1.42507270584183"><ele>519.0</ele><time>2026-03-30T09:36:54Z</time></trkpt><trkpt lat="41.84538012396799" lon="1.4251023567113004"><ele>519.0</ele><time>2026-03-30T09:36:55Z</time></trkpt><trkpt lat="41.84529354037001" lon="1.4251113422422212"><ele>519.0</ele><time>2026-03-30T09:36:56Z</time></trkpt><trkpt lat="41.84523350142817" lon="1.4249952787447995"><ele>519.0</ele><time>2026-03-30T09:36:57Z</time></trkpt><trkpt lat="41.84515945599782" lon="1.424892898623808"><ele>520.25</ele><time>2026-03-30T09:36:58Z</time></trkpt><trkpt lat="41.845063961156434" lon="1.4247712166664066"><ele>521.5</ele><time>2026-03-30T09:36:59Z</time></trkpt><trkpt lat="41.844972226215596" lon="1.4246424490440612"><ele>522.75</ele><time>2026-03-30T09:37:00Z</time></trkpt><trkpt lat="41.84487810715013" lon="1.42452536200944"><ele>524.0</ele><time>2026-03-30T09:37:01Z</time></trkpt><trkpt lat="41.844788972870234" lon="1.4244001954730332"><ele>524.0</ele><time>2026-03-30T09:37:02Z</time></trkpt><trkpt lat="41.84468326729844" lon="1.4242800262081377"><ele>524.0</ele><time>2026-03-30T09:37:03Z</time></trkpt><trkpt lat="41.84457523721812" lon="1.4241640226532946"><ele>524.0</ele><time>2026-03-30T09:37:04Z</time></trkpt><trkpt lat="41.84446251939587" lon="1.4240830715078663"><ele>524.0</ele><time>2026-03-30T09:37:05Z</time></trkpt><trkpt lat="41.844335467281674" lon="1.4240458531216502"><ele>521.0</ele><time>2026-03-30T09:37:06Z</time></trkpt><trkpt lat="41.84420688084173" lon="1.424071523979785"><ele>518.0</ele><time>2026-03-30T09:37:07Z</time></trkpt><trkpt lat="41.84408216477419" lon="1.4241263315767003"><ele>515.0</ele><time>2026-03-30T09:37:08Z</time></trkpt><trkpt lat="41.84395352165135" lon="1.424168639510588"><ele>512.0</ele><time>2026-03-30T09:37:09Z</time></trkpt><trkpt lat="41.843824746741745" lon="1.4242141394113417"><ele>512.0</ele><time>2026-03-30T09:37:10Z</time></trkpt><trkpt lat="41.84371060756632" lon="1.4242566519246103"><ele>512.0</ele><time>2026-03-30T09:37:11Z</time></trkpt><trkpt lat="41.84360236800867" lon="1.4242891111689275"><ele>512.0</ele><time>2026-03-30T09:37:12Z</time></trkpt><trkpt lat="41.84349716467746" lon="1.4242934971794488"><ele>512.0</ele><time>2026-03-30T09:37:13Z</time></trkpt><trkpt lat="41.8433989192092" lon="1.42428009556301"><ele>512.0</ele><time>2026-03-30T09:37:14Z</time></trkpt><trkpt lat="41.843323930516036" lon="1.4241801354693953"><ele>511.5</ele><time>2026-03-30T09:37:15Z</time></trkpt><trkpt lat="41.843234836116636" lon="1.4240699560762464"><ele>511.0</ele><time>2026-03-30T09:37:16Z</time></trkpt><trkpt lat="41.843142216929785" lon="1.4239851847272993"><ele>510.5</ele><time>2026-03-30T09:37:17Z</time></trkpt><trkpt lat="41.843050768875514" lon="1.42391604876933"><ele>510.0</ele><time>2026-03-30T09:37:18Z</time></trkpt><trkpt lat="41.84293698433576" lon="1.4239050725661648"><ele>510.0</ele><time>2026-03-30T09:37:19Z</time></trkpt><trkpt lat="41.8428160247085" lon="1.423946415172889"><ele>510.0</ele><time>2026-03-30T09:37:20Z</time></trkpt><trkpt lat="41.842689228503204" lon="1.4240169186568599"><ele>510.0</ele><time>2026-03-30T09:37:21Z</time></trkpt><trkpt lat="41.842562893899206" lon="1.424068644183206"><ele>510.0</ele><time>2026-03-30T09:37:22Z</time></trkpt><trkpt lat="41.84244051091286" lon="1.4241109119210504"><ele>509.5</ele><time>2026-03-30T09:37:23Z</time></trkpt><trkpt lat="41.842330062084564" lon="1.4241384395018466"><ele>509.0</ele><time>2026-03-30T09:37:24Z</time></trkpt><trkpt lat="41.84221251033937" lon="1.424109671331069"><ele>508.5</ele><time>2026-03-30T09:37:25Z</time></trkpt><trkpt lat="41.842084796566475" lon="1.424101947173421"><ele>508.0</ele><time>2026-03-30T09:37:26Z</time></trkpt><trkpt lat="41.841957917049804" lon="1.4240975173002284"><ele>508.0</ele><time>2026-03-30T09:37:27Z</time></trkpt><trkpt lat="41.84184279268065" lon="1.4240786072526834"><ele>507.99999999999994</ele><time>2026-03-30T09:37:28Z</time></trkpt><trkpt lat="41.8417461591924" lon="1.424031586297006"><ele>507.99999999999994</ele><time>2026-03-30T09:37:29Z</time></trkpt><trkpt lat="41.84167086779579" lon="1.4239333673048031"><ele>508.0</ele><time>2026-03-30T09:37:30Z</time></trkpt><trkpt lat="41.841592929067" lon="1.423804644619035"><ele>508.0</ele><time>2026-03-30T09:37:31Z</time></trkpt><trkpt lat="41.8415137926113" lon="1.423644297448416"><ele>508.75</ele><time>2026-03-30T09:37:32Z</time></trkpt><trkpt lat="41.84142311501412" lon="1.4234851719156947"><ele>509.5</ele><time>2026-03-30T09:37:33Z</time></trkpt><trkpt lat="41.84136014961453" lon="1.4233256076675755"><ele>510.25</ele><time>2026-03-30T09:37:34Z</time></trkpt><trkpt lat="41.84126730626949" lon="1.4231852268175877"><ele>511.0</ele><time>2026-03-30T09:37:35Z</time></trkpt><trkpt lat="41.84119342445363" lon="1.4230195615416308"><ele>509.0</ele><time>2026-03-30T09:37:36Z</time></trkpt><trkpt lat="41.841072878188086" lon="1.4229104754885302"><ele>507.0</ele><time>2026-03-30T09:37:37Z</time></trkpt><trkpt lat="41.84095035558071" lon="1.4228220042470634"><ele>505.0</ele><time>2026-03-30T09:37:38Z</time></trkpt><trkpt lat="41.84081458173538" lon="1.4227727395131724"><ele>503.0</ele><time>2026-03-30T09:37:39Z</time></trkpt><trkpt lat="41.84065551984684" lon="1.4227361123091677"><ele>503.0</ele><time>2026-03-30T09:37:40Z</time></trkpt><trkpt lat="41.8404914315919" lon="1.4226680336667732"><ele>503.0</ele><time>2026-03-30T09:37:41Z</time></trkpt><trkpt lat="41.84033975940143" lon="1.4226478023072107"><ele>503.0</ele><time>2026-03-30T09:37:42Z</time></trkpt><trkpt lat="41.84020011217399" lon="1.422607041411773"><ele>501.5</ele><time>2026-03-30T09:37:43Z</time></trkpt><trkpt lat="41.84006786623866" lon="1.4225369562722"><ele>500.0</ele><time>2026-03-30T09:37:44Z</time></trkpt><trkpt lat="41.839929114497785" lon="1.422464224447194"><ele>498.5</ele><time>2026-03-30T09:37:45Z</time></trkpt><trkpt lat="41.8397872852466" lon="1.4223836233176492"><ele>497.0</ele><time>2026-03-30T09:37:46Z</time></trkpt><trkpt lat="41.839651113764475" lon="1.4223085430721645"><ele>497.0</ele><time>2026-03-30T09:37:47Z</time></trkpt><trkpt lat="41.83952082388869" lon="1.4222367056650558"><ele>497.0</ele><time>2026-03-30T09:37:48Z</time></trkpt><trkpt lat="41.83938258249723" lon="1.422160772752499"><ele>497.0</ele><time>2026-03-30T09:37:49Z</time></trkpt><trkpt lat="41.839246688722454" lon="1.4220883406723783"><ele>497.0</ele><time>2026-03-30T09:37:50Z</time></trkpt><trkpt lat="41.83910328748084" lon="1.4220122955110879"><ele>497.0</ele><time>2026-03-30T09:37:51Z</time></trkpt><trkpt lat="41.83895850411737" lon="1.4219347196578305"><ele>497.0</ele><time>2026-03-30T09:37:52Z</time></trkpt><trkpt lat="41.83881083453278" lon="1.4218544179914294"><ele>497.0</ele><time>2026-03-30T09:37:53Z</time></trkpt><trkpt lat="41.838667757935184" lon="1.4217862064835327"><ele>497.0</ele><time>2026-03-30T09:37:54Z</time></trkpt><trkpt lat="41.83851854313869" lon="1.421769945332935"><ele>497.0</ele><time>2026-03-30T09:37:55Z</time></trkpt><trkpt lat="41.83836995344763" lon="1.421765919440716"><ele>497.0</ele><time>2026-03-30T09:37:56Z</time></trkpt><trkpt lat="41.83822306364291" lon="1.4218022315831795"><ele>497.0</ele><time>2026-03-30T09:37:57Z</time></trkpt><trkpt lat="41.8380841412766" lon="1.4218573117437525"><ele>497.0</ele><time>2026-03-30T09:37:58Z</time></trkpt><trkpt lat="41.837949546878626" lon="1.4219115489353116"><ele>497.0</ele><time>2026-03-30T09:37:59Z</time></trkpt><trkpt lat="41.83782008836665" lon="1.4219915710214663"><ele>497.0</ele><time>2026-03-30T09:38:00Z</time></trkpt><trkpt lat="41.83769631782508" lon="1.4221046402229525"><ele>497.0</ele><time>2026-03-30T09:38:01Z</time></trkpt><trkpt lat="41.83759381851886" lon="1.422234977178409"><ele>497.0</ele><time>2026-03-30T09:38:02Z</time></trkpt><trkpt lat="41.8375285323956" lon="1.422387744213275"><ele>497.0</ele><time>2026-03-30T09:38:03Z</time></trkpt><trkpt lat="41.83749990120276" lon="1.4225653373549056"><ele>497.0</ele><time>2026-03-30T09:38:04Z</time></trkpt><trkpt lat="41.83747468196841" lon="1.4227464268664214"><ele>497.0</ele><time>2026-03-30T09:38:05Z</time></trkpt><trkpt lat="41.83744375884099" lon="1.4229222067737446"><ele>497.75</ele><time>2026-03-30T09:38:06Z</time></trkpt><trkpt lat="41.837413040757745" lon="1.4230791303867762"><ele>498.5</ele><time>2026-03-30T09:38:07Z</time></trkpt><trkpt lat="41.83738401499022" lon="1.4232217740304782"><ele>499.25</ele><time>2026-03-30T09:38:08Z</time></trkpt><trkpt lat="41.837351649669216" lon="1.4233635156644324"><ele>500.0</ele><time>2026-03-30T09:38:09Z</time></trkpt><trkpt lat="41.8373120074718" lon="1.4235036074973237"><ele>500.0</ele><time>2026-03-30T09:38:10Z</time></trkpt><trkpt lat="41.83724937621672" lon="1.423639670206965"><ele>500.0</ele><time>2026-03-30T09:38:11Z</time></trkpt><trkpt lat="41.83714327562343" lon="1.4237287002927312"><ele>500.0</ele><time>2026-03-30T09:38:12Z</time></trkpt><trkpt lat="41.837043230302086" lon="1.4238193227165588"><ele>500.0</ele><time>2026-03-30T09:38:13Z</time></trkpt><trkpt lat="41.8369339159629" lon="1.4238775694696442"><ele>499.25</ele><time>2026-03-30T09:38:14Z</time></trkpt><trkpt lat="41.836809487053124" lon="1.4239074059258394"><ele>498.5</ele><time>2026-03-30T09:38:15Z</time></trkpt><trkpt lat="41.836668210437054" lon="1.4238890503753905"><ele>497.75</ele><time>2026-03-30T09:38:16Z</time></trkpt><trkpt lat="41.836520174090126" lon="1.4238650424001313"><ele>497.0</ele><time>2026-03-30T09:38:17Z</time></trkpt><trkpt lat="41.83638504854918" lon="1.4238288779986017"><ele>495.5</ele><time>2026-03-30T09:38:18Z</time></trkpt><trkpt lat="41.836263376545" lon="1.4237602543536128"><ele>494.0</ele><time>2026-03-30T09:38:19Z</time></trkpt><trkpt lat="41.83617521594785" lon="1.4236331408048357"><ele>492.5</ele><time>2026-03-30T09:38:20Z</time></trkpt><trkpt lat="41.83608604547531" lon="1.423475207354655"><ele>491.0</ele><time>2026-03-30T09:38:21Z</time></trkpt><trkpt lat="41.835997487631474" lon="1.423311923460117"><ele>491.25</ele><time>2026-03-30T09:38:22Z</time></trkpt><trkpt lat="41.835905011769256" lon="1.4231652483518726"><ele>491.5</ele><time>2026-03-30T09:38:23Z</time></trkpt><trkpt lat="41.83579837174194" lon="1.4230661643954647"><ele>491.75</ele><time>2026-03-30T09:38:24Z</time></trkpt><trkpt lat="41.835692984690134" lon="1.422978013014815"><ele>492.0</ele><time>2026-03-30T09:38:25Z</time></trkpt><trkpt lat="41.83557979825295" lon="1.422880639971894"><ele>492.0</ele><time>2026-03-30T09:38:26Z</time></trkpt><trkpt lat="41.83545299210457" lon="1.422803007172874"><ele>492.0</ele><time>2026-03-30T09:38:27Z</time></trkpt><trkpt lat="41.83530942849982" lon="1.4227668549326595"><ele>492.0</ele><time>2026-03-30T09:38:28Z</time></trkpt><trkpt lat="41.835163551573636" lon="1.4227434229888989"><ele>492.0</ele><time>2026-03-30T09:38:29Z</time></trkpt><trkpt lat="41.835007082935235" lon="1.4227597072232838"><ele>490.75</ele><time>2026-03-30T09:38:30Z</time></trkpt><trkpt lat="41.83485578332717" lon="1.422760879815411"><ele>489.5</ele><time>2026-03-30T09:38:31Z</time></trkpt><trkpt lat="41.83471050530311" lon="1.4227642299223786"><ele>488.25</ele><time>2026-03-30T09:38:32Z</time></trkpt><trkpt lat="41.83456498882561" lon="1.4227595368332955"><ele>487.0</ele><time>2026-03-30T09:38:33Z</time></trkpt><trkpt lat="41.834433356297154" lon="1.4227326454044338"><ele>487.0</ele><time>2026-03-30T09:38:34Z</time></trkpt><trkpt lat="41.834306969265135" lon="1.4226598786487161"><ele>487.0</ele><time>2026-03-30T09:38:35Z</time></trkpt><trkpt lat="41.83419414089618" lon="1.4225490129954927"><ele>487.0</ele><time>2026-03-30T09:38:36Z</time></trkpt><trkpt lat="41.834088627955644" lon="1.422423639137995"><ele>487.0</ele><time>2026-03-30T09:38:37Z</time></trkpt><trkpt lat="41.83398863607517" lon="1.422298493811003"><ele>486.75</ele><time>2026-03-30T09:38:38Z</time></trkpt><trkpt lat="41.83389751011907" lon="1.4221808837985328"><ele>486.5</ele><time>2026-03-30T09:38:39Z</time></trkpt><trkpt lat="41.83380748602761" lon="1.4220619064482234"><ele>486.25</ele><time>2026-03-30T09:38:40Z</time></trkpt><trkpt lat="41.83371089479906" lon="1.4219710266487389"><ele>486.0</ele><time>2026-03-30T09:38:41Z</time></trkpt><trkpt lat="41.833632717242224" lon="1.4218814865297176"><ele>486.0</ele><time>2026-03-30T09:38:42Z</time></trkpt><trkpt lat="41.83351648082075" lon="1.4218959832816516"><ele>486.0</ele><time>2026-03-30T09:38:43Z</time></trkpt><trkpt lat="41.833391330445" lon="1.4219449608517378"><ele>486.0</ele><time>2026-03-30T09:38:44Z</time></trkpt><trkpt lat="41.833264463799104" lon="1.422024922241887"><ele>486.0</ele><time>2026-03-30T09:38:45Z</time></trkpt><trkpt lat="41.83314712232703" lon="1.4221107990385238"><ele>487.75</ele><time>2026-03-30T09:38:46Z</time></trkpt><trkpt lat="41.83304418375297" lon="1.4221934955083397"><ele>489.5</ele><time>2026-03-30T09:38:47Z</time></trkpt><trkpt lat="41.832963060431965" lon="1.4223012607253227"><ele>491.25</ele><time>2026-03-30T09:38:48Z</time></trkpt><trkpt lat="41.83290011877852" lon="1.4224518463398717"><ele>493.0</ele><time>2026-03-30T09:38:49Z</time></trkpt><trkpt lat="41.832843878819375" lon="1.4226070053644704"><ele>493.0</ele><time>2026-03-30T09:38:50Z</time></trkpt><trkpt lat="41.83278503112806" lon="1.4227406642986347"><ele>492.99999999999994</ele><time>2026-03-30T09:38:51Z</time></trkpt><trkpt lat="41.83272433366125" lon="1.42286285691135"><ele>492.99999999999994</ele><time>2026-03-30T09:38:52Z</time></trkpt><trkpt lat="41.83264336043194" lon="1.4229428496522454"><ele>493.0</ele><time>2026-03-30T09:38:53Z</time></trkpt><trkpt lat="41.832549065664736" lon="1.4229572531632535"><ele>493.0</ele><time>2026-03-30T09:38:54Z</time></trkpt><trkpt lat="41.83245548636372" lon="1.4229594890084667"><ele>491.33333333333337</ele><time>2026-03-30T09:38:55Z</time></trkpt><trkpt lat="41.83236329637096" lon="1.422955002799983"><ele>489.6666666666667</ele><time>2026-03-30T09:38:56Z</time></trkpt><trkpt lat="41.83227823587499" lon="1.4229466122456496"><ele>488.0</ele><time>2026-03-30T09:38:57Z</time></trkpt><trkpt lat="41.832212235466066" lon="1.4229117759446104"><ele>486.33333333333337</ele><time>2026-03-30T09:38:58Z</time></trkpt><trkpt lat="41.83215460090193" lon="1.4228420485808788"><ele>484.6666666666667</ele><time>2026-03-30T09:38:59Z</time></trkpt><trkpt lat="41.83212670075825" lon="1.4227231793449746"><ele>483.0</ele><time>2026-03-30T09:39:00Z</time></trkpt><trkpt lat="41.83209340984055" lon="1.4225740242983629"><ele>483.0</ele><time>2026-03-30T09:39:01Z</time></trkpt><trkpt lat="41.83204211293965" lon="1.422388582192706"><ele>483.0</ele><time>2026-03-30T09:39:02Z</time></trkpt><trkpt lat="41.83198730435048" lon="1.4222161347085134"><ele>483.0</ele><time>2026-03-30T09:39:03Z</time></trkpt><trkpt lat="41.831937502789565" lon="1.4220807707602914"><ele>483.0</ele><time>2026-03-30T09:39:04Z</time></trkpt><trkpt lat="41.83189279639631" lon="1.4219846454919292"><ele>483.0</ele><time>2026-03-30T09:39:05Z</time></trkpt><trkpt lat="41.83182236880811" lon="1.4219261519294029"><ele>482.99999999999994</ele><time>2026-03-30T09:39:06Z</time></trkpt><trkpt lat="41.83172201270589" lon="1.4219470512573253"><ele>482.99999999999994</ele><time>2026-03-30T09:39:07Z</time></trkpt><trkpt lat="41.83163431028537" lon="1.4220353112740804"><ele>483.0</ele><time>2026-03-30T09:39:08Z</time></trkpt><trkpt lat="41.831627086963735" lon="1.4222332431479299"><ele>483.0</ele><time>2026-03-30T09:39:09Z</time></trkpt><trkpt lat="41.83163422054696" lon="1.4224236735003577"><ele>482.0</ele><time>2026-03-30T09:39:10Z</time></trkpt><trkpt lat="41.83164046364638" lon="1.422625873879781"><ele>481.0</ele><time>2026-03-30T09:39:11Z</time></trkpt><trkpt lat="41.83163572515952" lon="1.422795702594085"><ele>480.0</ele><time>2026-03-30T09:39:12Z</time></trkpt><trkpt lat="41.83162462184962" lon="1.4229470337850845"><ele>479.0</ele><time>2026-03-30T09:39:13Z</time></trkpt><trkpt lat="41.831597998361666" lon="1.4230859891792174"><ele>479.0</ele><time>2026-03-30T09:39:14Z</time></trkpt><trkpt lat="41.831524062551416" lon="1.4231912145358308"><ele>479.0</ele><time>2026-03-30T09:39:15Z</time></trkpt><trkpt lat="41.83143751762531" lon="1.4232678819658793"><ele>479.0</ele><time>2026-03-30T09:39:16Z</time></trkpt><trkpt lat="41.83133326454151" lon="1.4233186653503596"><ele>479.0</ele><time>2026-03-30T09:39:17Z</time></trkpt><trkpt lat="41.831208625468676" lon="1.423357522364175"><ele>479.0</ele><time>2026-03-30T09:39:18Z</time></trkpt><trkpt lat="41.831093427932004" lon="1.4234003610542598"><ele>479.0</ele><time>2026-03-30T09:39:19Z</time></trkpt><trkpt lat="41.83098517099908" lon="1.423436423219315"><ele>479.0</ele><time>2026-03-30T09:39:20Z</time></trkpt><trkpt lat="41.83088547750386" lon="1.4234551115369285"><ele>479.0</ele><time>2026-03-30T09:39:21Z</time></trkpt><trkpt lat="41.830782563790855" lon="1.4234454492882003"><ele>479.0</ele><time>2026-03-30T09:39:22Z</time></trkpt><trkpt lat="41.83071303253694" lon="1.4233486775292559"><ele>478.25</ele><time>2026-03-30T09:39:23Z</time></trkpt><trkpt lat="41.83062938344063" lon="1.4232323808847873"><ele>477.5</ele><time>2026-03-30T09:39:24Z</time></trkpt><trkpt lat="41.83053890157491" lon="1.42309224255865"><ele>476.75</ele><time>2026-03-30T09:39:25Z</time></trkpt><trkpt lat="41.83045490955905" lon="1.422964481810063"><ele>476.0</ele><time>2026-03-30T09:39:26Z</time></trkpt><trkpt lat="41.830378823568886" lon="1.4228494064734714"><ele>476.0</ele><time>2026-03-30T09:39:27Z</time></trkpt><trkpt lat="41.83030628612533" lon="1.4227431424880352"><ele>476.0</ele><time>2026-03-30T09:39:28Z</time></trkpt><trkpt lat="41.83020836846428" lon="1.422675244822319"><ele>476.0</ele><time>2026-03-30T09:39:29Z</time></trkpt><trkpt lat="41.83010479538573" lon="1.4226354234679037"><ele>476.0</ele><time>2026-03-30T09:39:30Z</time></trkpt><trkpt lat="41.82999065790131" lon="1.422675274069408"><ele>476.0</ele><time>2026-03-30T09:39:31Z</time></trkpt><trkpt lat="41.82986671906772" lon="1.4227475416157902"><ele>475.5</ele><time>2026-03-30T09:39:32Z</time></trkpt><trkpt lat="41.829741595589674" lon="1.4228168817347666"><ele>475.0</ele><time>2026-03-30T09:39:33Z</time></trkpt><trkpt lat="41.82962298159118" lon="1.4228816295048958"><ele>474.5</ele><time>2026-03-30T09:39:34Z</time></trkpt><trkpt lat="41.82951608108159" lon="1.4229659348465924"><ele>474.0</ele><time>2026-03-30T09:39:35Z</time></trkpt><trkpt lat="41.82943233671161" lon="1.4230835003446185"><ele>474.25</ele><time>2026-03-30T09:39:36Z</time></trkpt><trkpt lat="41.82935238082117" lon="1.4232189955560666"><ele>474.5</ele><time>2026-03-30T09:39:37Z</time></trkpt><trkpt lat="41.82926941571744" lon="1.4233521110709353"><ele>474.75</ele><time>2026-03-30T09:39:38Z</time></trkpt><trkpt lat="41.829180690685256" lon="1.423480238433321"><ele>475.0</ele><time>2026-03-30T09:39:39Z</time></trkpt><trkpt lat="41.8290857468719" lon="1.4236036712206492"><ele>475.0</ele><time>2026-03-30T09:39:40Z</time></trkpt><trkpt lat="41.82897245619202" lon="1.4237029758723176"><ele>475.0</ele><time>2026-03-30T09:39:41Z</time></trkpt><trkpt lat="41.8288577788488" lon="1.423803808546719"><ele>475.0</ele><time>2026-03-30T09:39:42Z</time></trkpt><trkpt lat="41.82874507619225" lon="1.4238920509003217"><ele>475.0</ele><time>2026-03-30T09:39:43Z</time></trkpt><trkpt lat="41.82863789164248" lon="1.423965228924026"><ele>474.0</ele><time>2026-03-30T09:39:44Z</time></trkpt><trkpt lat="41.8285259663923" lon="1.4239785548650727"><ele>473.0</ele><time>2026-03-30T09:39:45Z</time></trkpt><trkpt lat="41.82840705274657" lon="1.423942081889767"><ele>472.0</ele><time>2026-03-30T09:39:46Z</time></trkpt><trkpt lat="41.82828654414817" lon="1.4238656410731279"><ele>471.0</ele><time>2026-03-30T09:39:47Z</time></trkpt><trkpt lat="41.82816114402874" lon="1.4237623473408154"><ele>471.0</ele><time>2026-03-30T09:39:48Z</time></trkpt><trkpt lat="41.82803992344806" lon="1.423646486972"><ele>471.0</ele><time>2026-03-30T09:39:49Z</time></trkpt><trkpt lat="41.82793556535349" lon="1.4235350238315332"><ele>471.0</ele><time>2026-03-30T09:39:50Z</time></trkpt><trkpt lat="41.827827444805166" lon="1.4234219807657624"><ele>471.0</ele><time>2026-03-30T09:39:51Z</time></trkpt><trkpt lat="41.82771346283079" lon="1.4233096880113696"><ele>470.5</ele><time>2026-03-30T09:39:52Z</time></trkpt><trkpt lat="41.827593513646605" lon="1.4232064353505343"><ele>470.0</ele><time>2026-03-30T09:39:53Z</time></trkpt><trkpt lat="41.82745886812728" lon="1.4231439797729795"><ele>469.5</ele><time>2026-03-30T09:39:54Z</time></trkpt><trkpt lat="41.827322241864714" lon="1.4231067022628618"><ele>469.0</ele><time>2026-03-30T09:39:55Z</time></trkpt><trkpt lat="41.82718085293945" lon="1.4231091073569107"><ele>469.0</ele><time>2026-03-30T09:39:56Z</time></trkpt><trkpt lat="41.82704674287132" lon="1.4230794422093196"><ele>469.0</ele><time>2026-03-30T09:39:57Z</time></trkpt><trkpt lat="41.82691765244388" lon="1.4230642629356598"><ele>469.0</ele><time>2026-03-30T09:39:58Z</time></trkpt><trkpt lat="41.82679182950237" lon="1.423055984797982"><ele>469.0</ele><time>2026-03-30T09:39:59Z</time></trkpt><trkpt lat="41.826661379299765" lon="1.4230909992862626"><ele>467.75</ele><time>2026-03-30T09:40:00Z</time></trkpt><trkpt lat="41.82652998327654" lon="1.4231660456165465"><ele>466.5</ele><time>2026-03-30T09:40:01Z</time></trkpt><trkpt lat="41.82640390493569" lon="1.4232683722411064"><ele>465.25</ele><time>2026-03-30T09:40:02Z</time></trkpt><trkpt lat="41.82627033256967" lon="1.4233444860160815"><ele>464.0</ele><time>2026-03-30T09:40:03Z</time></trkpt><trkpt lat="41.82614902345186" lon="1.4234522251490587"><ele>464.0</ele><time>2026-03-30T09:40:04Z</time></trkpt><trkpt lat="41.826014554951826" lon="1.423510334697948"><ele>464.0</ele><time>2026-03-30T09:40:05Z</time></trkpt><trkpt lat="41.82587711808071" lon="1.4235649032415683"><ele>464.0</ele><time>2026-03-30T09:40:06Z</time></trkpt><trkpt lat="41.82574602107074" lon="1.4235878977623242"><ele>464.0</ele><time>2026-03-30T09:40:07Z</time></trkpt><trkpt lat="41.825614627480284" lon="1.4236102188739317"><ele>463.5</ele><time>2026-03-30T09:40:08Z</time></trkpt><trkpt lat="41.82548369520324" lon="1.4236531073027618"><ele>463.0</ele><time>2026-03-30T09:40:09Z</time></trkpt><trkpt lat="41.825376434611265" lon="1.4237354804135136"><ele>462.5</ele><time>2026-03-30T09:40:10Z</time></trkpt><trkpt lat="41.825274496947344" lon="1.4237867418786707"><ele>462.0</ele><time>2026-03-30T09:40:11Z</time></trkpt><trkpt lat="41.82518278661491" lon="1.4238071879496317"><ele>460.8</ele><time>2026-03-30T09:40:12Z</time></trkpt><trkpt lat="41.82509248259217" lon="1.4237970331429792"><ele>459.6</ele><time>2026-03-30T09:40:13Z</time></trkpt><trkpt lat="41.825019787135474" lon="1.4237271740199562"><ele>458.40000000000003</ele><time>2026-03-30T09:40:14Z</time></trkpt><trkpt lat="41.824938404158814" lon="1.4236338624767446"><ele>457.20000000000005</ele><time>2026-03-30T09:40:15Z</time></trkpt><trkpt lat="41.82485399057997" lon="1.423509700400046"><ele>456.0</ele><time>2026-03-30T09:40:16Z</time></trkpt><trkpt lat="41.824762189659296" lon="1.423368048902447"><ele>456.0</ele><time>2026-03-30T09:40:17Z</time></trkpt><trkpt lat="41.8246674586436" lon="1.4232277348822922"><ele>456.0</ele><time>2026-03-30T09:40:18Z</time></trkpt><trkpt lat="41.82455830546574" lon="1.4231115674787915"><ele>456.0</ele><time>2026-03-30T09:40:19Z</time></trkpt><trkpt lat="41.82445496120074" lon="1.4230169151725247"><ele>456.0</ele><time>2026-03-30T09:40:20Z</time></trkpt><trkpt lat="41.82432194139765" lon="1.4229624806365213"><ele>456.0</ele><time>2026-03-30T09:40:21Z</time></trkpt><trkpt lat="41.8242053796682" lon="1.4228909250253308"><ele>456.0</ele><time>2026-03-30T09:40:22Z</time></trkpt><trkpt lat="41.82411713587116" lon="1.4227935750906096"><ele>456.0</ele><time>2026-03-30T09:40:23Z</time></trkpt><trkpt lat="41.824073781467916" lon="1.4226689753488477"><ele>456.0</ele><time>2026-03-30T09:40:24Z</time></trkpt><trkpt lat="41.824050807803964" lon="1.4225004627111584"><ele>456.0</ele><time>2026-03-30T09:40:25Z</time></trkpt><trkpt lat="41.82399575819627" lon="1.4222999411750925"><ele>456.0</ele><time>2026-03-30T09:40:26Z</time></trkpt><trkpt lat="41.82395760230192" lon="1.4221045419515543"><ele>456.0</ele><time>2026-03-30T09:40:27Z</time></trkpt><trkpt lat="41.82393581401221" lon="1.4219198280787602"><ele>456.0</ele><time>2026-03-30T09:40:28Z</time></trkpt><trkpt lat="41.82390090376524" lon="1.421738142362066"><ele>457.75</ele><time>2026-03-30T09:40:29Z</time></trkpt><trkpt lat="41.8238655094125" lon="1.4215541012592123"><ele>459.5</ele><time>2026-03-30T09:40:30Z</time></trkpt><trkpt lat="41.82380880205356" lon="1.421360769656355"><ele>461.25</ele><time>2026-03-30T09:40:31Z</time></trkpt><trkpt lat="41.82376885104369" lon="1.4211630523259666"><ele>463.0</ele><time>2026-03-30T09:40:32Z</time></trkpt><trkpt lat="41.82373439999535" lon="1.420958560637471"><ele>461.33333333333337</ele><time>2026-03-30T09:40:33Z</time></trkpt><trkpt lat="41.82365455124723" lon="1.4207757056825883"><ele>459.66666666666663</ele><time>2026-03-30T09:40:34Z</time></trkpt><trkpt lat="41.823536664647186" lon="1.4206061842156152"><ele>458.0</ele><time>2026-03-30T09:40:35Z</time></trkpt><trkpt lat="41.82341810620843" lon="1.4204723992031953"><ele>458.0</ele><time>2026-03-30T09:40:36Z</time></trkpt><trkpt lat="41.82330328776968" lon="1.4202712795472991"><ele>458.0</ele><time>2026-03-30T09:40:37Z</time></trkpt><trkpt lat="41.82317885012524" lon="1.4200701779895795"><ele>458.0</ele><time>2026-03-30T09:40:38Z</time></trkpt><trkpt lat="41.82305664401917" lon="1.419895368832508"><ele>458.0</ele><time>2026-03-30T09:40:39Z</time></trkpt><trkpt lat="41.82292857756941" lon="1.419765857377363"><ele>458.0</ele><time>2026-03-30T09:40:40Z</time></trkpt><trkpt lat="41.8228212326728" lon="1.4196183497484263"><ele>458.0</ele><time>2026-03-30T09:40:41Z</time></trkpt><trkpt lat="41.82269978166388" lon="1.4194905002446807"><ele>456.0</ele><time>2026-03-30T09:40:42Z</time></trkpt><trkpt lat="41.82258539054672" lon="1.419377966671962"><ele>454.0</ele><time>2026-03-30T09:40:43Z</time></trkpt><trkpt lat="41.822475188027305" lon="1.419272674873403"><ele>452.0</ele><time>2026-03-30T09:40:44Z</time></trkpt><trkpt lat="41.82236844945644" lon="1.4191685880057823"><ele>450.0</ele><time>2026-03-30T09:40:45Z</time></trkpt><trkpt lat="41.82227254759939" lon="1.4190506785063548"><ele>450.0</ele><time>2026-03-30T09:40:46Z</time></trkpt><trkpt lat="41.822204608114035" lon="1.4189046774579275"><ele>450.0</ele><time>2026-03-30T09:40:47Z</time></trkpt><trkpt lat="41.822137162294865" lon="1.418755845909916"><ele>450.0</ele><time>2026-03-30T09:40:48Z</time></trkpt><trkpt lat="41.822076297121896" lon="1.4186150385713359"><ele>450.0</ele><time>2026-03-30T09:40:49Z</time></trkpt><trkpt lat="41.82201774685336" lon="1.4184787158464685"><ele>449.4</ele><time>2026-03-30T09:40:50Z</time></trkpt><trkpt lat="41.82194123470621" lon="1.4183638967101242"><ele>448.8</ele><time>2026-03-30T09:40:51Z</time></trkpt><trkpt lat="41.82188474559091" lon="1.4182648345692432"><ele>448.20000000000005</ele><time>2026-03-30T09:40:52Z</time></trkpt><trkpt lat="41.821774442511455" lon="1.41824022789693"><ele>447.6</ele><time>2026-03-30T09:40:53Z</time></trkpt><trkpt lat="41.82167771233599" lon="1.4183167201439775"><ele>447.0</ele><time>2026-03-30T09:40:54Z</time></trkpt><trkpt lat="41.82159125659531" lon="1.4183608746426235"><ele>447.0</ele><time>2026-03-30T09:40:55Z</time></trkpt><trkpt lat="41.82151742566778" lon="1.418398111025753"><ele>447.00000000000006</ele><time>2026-03-30T09:40:56Z</time></trkpt><trkpt lat="41.82144941059159" lon="1.4184252692602166"><ele>447.00000000000006</ele><time>2026-03-30T09:40:57Z</time></trkpt><trkpt lat="41.8213351885299" lon="1.4183908270760202"><ele>447.0</ele><time>2026-03-30T09:40:59Z</time></trkpt><trkpt lat="41.82129312560516" lon="1.4182877047272644"><ele>447.0</ele><time>2026-03-30T09:41:00Z</time></trkpt><trkpt lat="41.82123511996632" lon="1.4181841702681308"><ele>447.0</ele><time>2026-03-30T09:41:01Z</time></trkpt><trkpt lat="41.82112577575982" lon="1.4180259365453431"><ele>447.0</ele><time>2026-03-30T09:41:02Z</time></trkpt><trkpt lat="41.82102798454028" lon="1.4178666058306741"><ele>447.0</ele><time>2026-03-30T09:41:03Z</time></trkpt><trkpt lat="41.820911520404614" lon="1.417745879672659"><ele>446.66666666666663</ele><time>2026-03-30T09:41:04Z</time></trkpt><trkpt lat="41.820776503171786" lon="1.4176356144934397"><ele>446.3333333333333</ele><time>2026-03-30T09:41:05Z</time></trkpt><trkpt lat="41.82061660004582" lon="1.417520508468752"><ele>446.0</ele><time>2026-03-30T09:41:06Z</time></trkpt><trkpt lat="41.820490629656014" lon="1.4173988682819187"><ele>446.0</ele><time>2026-03-30T09:41:07Z</time></trkpt><trkpt lat="41.82037123921225" lon="1.4173089494892654"><ele>446.0</ele><time>2026-03-30T09:41:08Z</time></trkpt><trkpt lat="41.82024882411325" lon="1.417217237846101"><ele>446.0</ele><time>2026-03-30T09:41:09Z</time></trkpt><trkpt lat="41.82012105081709" lon="1.4171156191506995"><ele>446.0</ele><time>2026-03-30T09:41:10Z</time></trkpt><trkpt lat="41.81999814456655" lon="1.4170077066532811"><ele>445.3333333333333</ele><time>2026-03-30T09:41:11Z</time></trkpt><trkpt lat="41.8198911761794" lon="1.4168787448216766"><ele>444.66666666666663</ele><time>2026-03-30T09:41:12Z</time></trkpt><trkpt lat="41.81979869015712" lon="1.41672011830738"><ele>444.0</ele><time>2026-03-30T09:41:13Z</time></trkpt><trkpt lat="41.81971498835241" lon="1.4165435475338484"><ele>444.0</ele><time>2026-03-30T09:41:14Z</time></trkpt><trkpt lat="41.81962272782045" lon="1.4163642472228049"><ele>444.0</ele><time>2026-03-30T09:41:15Z</time></trkpt><trkpt lat="41.81954933031709" lon="1.4161557571058208"><ele>444.0</ele><time>2026-03-30T09:41:16Z</time></trkpt><trkpt lat="41.8195153511849" lon="1.4159254420467124"><ele>444.25</ele><time>2026-03-30T09:41:17Z</time></trkpt><trkpt lat="41.819467930098945" lon="1.4157210099101796"><ele>444.5</ele><time>2026-03-30T09:41:18Z</time></trkpt><trkpt lat="41.81942409255527" lon="1.4155476070628539"><ele>444.75</ele><time>2026-03-30T09:41:19Z</time></trkpt><trkpt lat="41.81935429908018" lon="1.4154045779863103"><ele>445.0</ele><time>2026-03-30T09:41:20Z</time></trkpt><trkpt lat="41.81925074864544" lon="1.4153023077941482"><ele>445.0</ele><time>2026-03-30T09:41:21Z</time></trkpt><trkpt lat="41.819099122370474" lon="1.4152472653848445"><ele>445.0</ele><time>2026-03-30T09:41:22Z</time></trkpt><trkpt lat="41.818954330177775" lon="1.4152407639361981"><ele>445.0</ele><time>2026-03-30T09:41:23Z</time></trkpt><trkpt lat="41.81881023029506" lon="1.415259858984972"><ele>445.0</ele><time>2026-03-30T09:41:24Z</time></trkpt><trkpt lat="41.8186813188352" lon="1.4153425847831584"><ele>445.0</ele><time>2026-03-30T09:41:25Z</time></trkpt><trkpt lat="41.81854346112506" lon="1.4154250113602556"><ele>445.0</ele><time>2026-03-30T09:41:26Z</time></trkpt><trkpt lat="41.8184169049353" lon="1.4155102517085385"><ele>445.0</ele><time>2026-03-30T09:41:27Z</time></trkpt><trkpt lat="41.8182984185541" lon="1.4155706919890456"><ele>445.0</ele><time>2026-03-30T09:41:28Z</time></trkpt><trkpt lat="41.8181749976781" lon="1.4155744458228177"><ele>448.6666666666667</ele><time>2026-03-30T09:41:29Z</time></trkpt><trkpt lat="41.81802122191881" lon="1.4155589083406235"><ele>452.33333333333337</ele><time>2026-03-30T09:41:30Z</time></trkpt><trkpt lat="41.81784310721158" lon="1.4155454277172574"><ele>456.0</ele><time>2026-03-30T09:41:31Z</time></trkpt><trkpt lat="41.81765304666094" lon="1.415532803288874"><ele>458.33333333333337</ele><time>2026-03-30T09:41:32Z</time></trkpt><trkpt lat="41.81748144915162" lon="1.4155252526552986"><ele>460.6666666666667</ele><time>2026-03-30T09:41:33Z</time></trkpt><trkpt lat="41.817322363170014" lon="1.4155116767992386"><ele>463.0</ele><time>2026-03-30T09:41:34Z</time></trkpt><trkpt lat="41.8171826335686" lon="1.4154770947825863"><ele>458.5</ele><time>2026-03-30T09:41:35Z</time></trkpt><trkpt lat="41.81707878657211" lon="1.4153975360568483"><ele>454.0</ele><time>2026-03-30T09:41:36Z</time></trkpt><trkpt lat="41.81702401014667" lon="1.4152845148609812"><ele>449.5</ele><time>2026-03-30T09:41:37Z</time></trkpt><trkpt lat="41.81690805686922" lon="1.4150938354011495"><ele>445.0</ele><time>2026-03-30T09:41:38Z</time></trkpt><trkpt lat="41.81682567257574" lon="1.4149626181296264"><ele>447.0</ele><time>2026-03-30T09:41:39Z</time></trkpt><trkpt lat="41.81674958283789" lon="1.4148527394141988"><ele>449.0</ele><time>2026-03-30T09:41:40Z</time></trkpt><trkpt lat="41.81666732695335" lon="1.4147305726664015"><ele>451.0</ele><time>2026-03-30T09:41:41Z</time></trkpt><trkpt lat="41.81659310421942" lon="1.414594436635279"><ele>453.0</ele><time>2026-03-30T09:41:42Z</time></trkpt><trkpt lat="41.816568412260786" lon="1.4144334806034085"><ele>453.0</ele><time>2026-03-30T09:41:43Z</time></trkpt><trkpt lat="41.816596184757934" lon="1.4142836154433287"><ele>453.0</ele><time>2026-03-30T09:41:44Z</time></trkpt><trkpt lat="41.81661457991506" lon="1.4141035518813565"><ele>453.0</ele><time>2026-03-30T09:41:45Z</time></trkpt><trkpt lat="41.816630243257805" lon="1.4139221627708822"><ele>453.0</ele><time>2026-03-30T09:41:46Z</time></trkpt><trkpt lat="41.81663171506551" lon="1.4137297874775658"><ele>452.5</ele><time>2026-03-30T09:41:47Z</time></trkpt><trkpt lat="41.81666498064056" lon="1.4135395295611968"><ele>452.0</ele><time>2026-03-30T09:41:48Z</time></trkpt><trkpt lat="41.81669691618825" lon="1.4133552689919289"><ele>451.5</ele><time>2026-03-30T09:41:49Z</time></trkpt><trkpt lat="41.81671827072291" lon="1.4131884525485614"><ele>451.0</ele><time>2026-03-30T09:41:50Z</time></trkpt><trkpt lat="41.81671881231921" lon="1.413038275742544"><ele>448.75</ele><time>2026-03-30T09:41:51Z</time></trkpt><trkpt lat="41.81665493830075" lon="1.41289821765864"><ele>446.5</ele><time>2026-03-30T09:41:52Z</time></trkpt><trkpt lat="41.816548708484525" lon="1.4128033677758292"><ele>444.25</ele><time>2026-03-30T09:41:53Z</time></trkpt><trkpt lat="41.81642345763479" lon="1.41281405805264"><ele>442.0</ele><time>2026-03-30T09:41:54Z</time></trkpt><trkpt lat="41.816329278594814" lon="1.41293491140545"><ele>442.0</ele><time>2026-03-30T09:41:55Z</time></trkpt><trkpt lat="41.81620530864965" lon="1.412994755544486"><ele>442.0</ele><time>2026-03-30T09:41:56Z</time></trkpt><trkpt lat="41.816108630889104" lon="1.4130116163991564"><ele>442.0</ele><time>2026-03-30T09:41:57Z</time></trkpt><trkpt lat="41.81601062744869" lon="1.412962940114014"><ele>442.0</ele><time>2026-03-30T09:41:58Z</time></trkpt><trkpt lat="41.81591206160521" lon="1.412845328940856"><ele>442.6666666666667</ele><time>2026-03-30T09:41:59Z</time></trkpt><trkpt lat="41.81577331162495" lon="1.412674068765101"><ele>443.33333333333337</ele><time>2026-03-30T09:42:00Z</time></trkpt><trkpt lat="41.815651418371324" lon="1.4125251846316094"><ele>444.0</ele><time>2026-03-30T09:42:01Z</time></trkpt><trkpt lat="41.815519032789474" lon="1.4123655818719776"><ele>444.0</ele><time>2026-03-30T09:42:02Z</time></trkpt><trkpt lat="41.81538706732648" lon="1.4122140590622994"><ele>444.0</ele><time>2026-03-30T09:42:03Z</time></trkpt><trkpt lat="41.81525539072542" lon="1.412082132574662"><ele>444.0</ele><time>2026-03-30T09:42:04Z</time></trkpt><trkpt lat="41.81513668086709" lon="1.4119380856759265"><ele>444.66666666666663</ele><time>2026-03-30T09:42:05Z</time></trkpt><trkpt lat="41.81501250770455" lon="1.4117884111315293"><ele>445.3333333333333</ele><time>2026-03-30T09:42:06Z</time></trkpt><trkpt lat="41.81486849664694" lon="1.41162670531921"><ele>446.0</ele><time>2026-03-30T09:42:07Z</time></trkpt><trkpt lat="41.8147137186554" lon="1.4114687867365614"><ele>445.66666666666663</ele><time>2026-03-30T09:42:08Z</time></trkpt><trkpt lat="41.81454308646132" lon="1.4113170721044563"><ele>445.33333333333337</ele><time>2026-03-30T09:42:09Z</time></trkpt><trkpt lat="41.8143652800686" lon="1.4111568343238072"><ele>445.0</ele><time>2026-03-30T09:42:10Z</time></trkpt><trkpt lat="41.814194568786995" lon="1.4109979536352946"><ele>445.0</ele><time>2026-03-30T09:42:11Z</time></trkpt><trkpt lat="41.814031891706676" lon="1.4108483546473813"><ele>445.0</ele><time>2026-03-30T09:42:12Z</time></trkpt><trkpt lat="41.81388302528889" lon="1.4107068670009828"><ele>445.0</ele><time>2026-03-30T09:42:13Z</time></trkpt><trkpt lat="41.813740041602934" lon="1.4105708079291284"><ele>445.33333333333337</ele><time>2026-03-30T09:42:14Z</time></trkpt><trkpt lat="41.81360070502932" lon="1.4104317410624752"><ele>445.66666666666663</ele><time>2026-03-30T09:42:15Z</time></trkpt><trkpt lat="41.81348489147513" lon="1.4102568949637817"><ele>446.0</ele><time>2026-03-30T09:42:16Z</time></trkpt><trkpt lat="41.813368288863145" lon="1.410080921031102"><ele>446.0</ele><time>2026-03-30T09:42:17Z</time></trkpt><trkpt lat="41.8132559484824" lon="1.409901040248948"><ele>446.0</ele><time>2026-03-30T09:42:18Z</time></trkpt><trkpt lat="41.81314761968702" lon="1.409731875603478"><ele>446.0</ele><time>2026-03-30T09:42:19Z</time></trkpt><trkpt lat="41.8130422451175" lon="1.40956805981585"><ele>444.0</ele><time>2026-03-30T09:42:20Z</time></trkpt><trkpt lat="41.812940167827655" lon="1.4094082200738183"><ele>442.0</ele><time>2026-03-30T09:42:21Z</time></trkpt><trkpt lat="41.812839338791456" lon="1.409249006582771"><ele>440.0</ele><time>2026-03-30T09:42:22Z</time></trkpt><trkpt lat="41.812736100360674" lon="1.4090844539366822"><ele>439.66666666666663</ele><time>2026-03-30T09:42:23Z</time></trkpt><trkpt lat="41.81263075988715" lon="1.4089165508465853"><ele>439.33333333333337</ele><time>2026-03-30T09:42:24Z</time></trkpt><trkpt lat="41.81252493489959" lon="1.4087492918028082"><ele>439.0</ele><time>2026-03-30T09:42:25Z</time></trkpt><trkpt lat="41.81242252415599" lon="1.4085914630412297"><ele>439.0</ele><time>2026-03-30T09:42:26Z</time></trkpt><trkpt lat="41.812322449959545" lon="1.4084395163723797"><ele>439.0</ele><time>2026-03-30T09:42:27Z</time></trkpt><trkpt lat="41.81221535643483" lon="1.408309698999857"><ele>439.0</ele><time>2026-03-30T09:42:28Z</time></trkpt><trkpt lat="41.812129198746604" lon="1.4081600713256914"><ele>439.0</ele><time>2026-03-30T09:42:29Z</time></trkpt><trkpt lat="41.81203772154491" lon="1.4080306312015662"><ele>438.6</ele><time>2026-03-30T09:42:30Z</time></trkpt><trkpt lat="41.81195826214642" lon="1.4079073829915527"><ele>438.2</ele><time>2026-03-30T09:42:31Z</time></trkpt><trkpt lat="41.81188731311163" lon="1.4077962749420925"><ele>437.80000000000007</ele><time>2026-03-30T09:42:32Z</time></trkpt><trkpt lat="41.81182471161051" lon="1.4076855914732533"><ele>437.40000000000003</ele><time>2026-03-30T09:42:33Z</time></trkpt><trkpt lat="41.81176101547735" lon="1.4075870438137474"><ele>437.0</ele><time>2026-03-30T09:42:34Z</time></trkpt><trkpt lat="41.811700095394976" lon="1.4075034881769948"><ele>437.8333333333333</ele><time>2026-03-30T09:42:35Z</time></trkpt><trkpt lat="41.811660786424845" lon="1.4074160916722454"><ele>438.66666666666663</ele><time>2026-03-30T09:42:36Z</time></trkpt><trkpt lat="41.81161754619925" lon="1.4073493900898335"><ele>439.5</ele><time>2026-03-30T09:42:37Z</time></trkpt><trkpt lat="41.811529923542615" lon="1.407211282914255"><ele>440.33333333333337</ele><time>2026-03-30T09:42:39Z</time></trkpt><trkpt lat="41.811480112038694" lon="1.4071334786204701"><ele>441.1666666666667</ele><time>2026-03-30T09:42:40Z</time></trkpt><trkpt lat="41.811426403166884" lon="1.4070632405921073"><ele>442.0</ele><time>2026-03-30T09:42:41Z</time></trkpt><trkpt lat="41.81139178438022" lon="1.4069601585698743"><ele>442.0</ele><time>2026-03-30T09:42:42Z</time></trkpt><trkpt lat="41.81137171020618" lon="1.4068440497417478"><ele>442.00000000000006</ele><time>2026-03-30T09:42:43Z</time></trkpt><trkpt lat="41.811369254333805" lon="1.4067123719411623"><ele>442.00000000000006</ele><time>2026-03-30T09:42:44Z</time></trkpt><trkpt lat="41.81136847935456" lon="1.4065753853080996"><ele>442.0</ele><time>2026-03-30T09:42:45Z</time></trkpt><trkpt lat="41.81137172532204" lon="1.406425232857494"><ele>442.0</ele><time>2026-03-30T09:42:46Z</time></trkpt><trkpt lat="41.811372243998214" lon="1.4062763631403006"><ele>441.6</ele><time>2026-03-30T09:42:47Z</time></trkpt><trkpt lat="41.81137124710071" lon="1.4061276800574438"><ele>441.20000000000005</ele><time>2026-03-30T09:42:48Z</time></trkpt><trkpt lat="41.811367206413664" lon="1.4059829060543678"><ele>440.8</ele><time>2026-03-30T09:42:49Z</time></trkpt><trkpt lat="41.811368674014524" lon="1.405861172101832"><ele>440.4</ele><time>2026-03-30T09:42:50Z</time></trkpt><trkpt lat="41.81136906828284" lon="1.4057472468256456"><ele>440.0</ele><time>2026-03-30T09:42:51Z</time></trkpt><trkpt lat="41.81137455932791" lon="1.4056280175884743"><ele>440.0</ele><time>2026-03-30T09:42:52Z</time></trkpt><trkpt lat="41.81137458011663" lon="1.4055027113331031"><ele>440.0</ele><time>2026-03-30T09:42:53Z</time></trkpt><trkpt lat="41.81137884012353" lon="1.4053757944192016"><ele>440.0</ele><time>2026-03-30T09:42:54Z</time></trkpt><trkpt lat="41.81137921626402" lon="1.4052425285744758"><ele>440.0</ele><time>2026-03-30T09:42:55Z</time></trkpt><trkpt lat="41.81137897416737" lon="1.4051107423279707"><ele>440.0</ele><time>2026-03-30T09:42:56Z</time></trkpt><trkpt lat="41.811378548734716" lon="1.404982980525001"><ele>440.0</ele><time>2026-03-30T09:42:57Z</time></trkpt><trkpt lat="41.811376644967815" lon="1.4048529002255452"><ele>440.0</ele><time>2026-03-30T09:42:58Z</time></trkpt><trkpt lat="41.811379477571876" lon="1.4047237594012696"><ele>440.0</ele><time>2026-03-30T09:42:59Z</time></trkpt><trkpt lat="41.811387700506025" lon="1.4045949502700743"><ele>440.0</ele><time>2026-03-30T09:43:00Z</time></trkpt><trkpt lat="41.81139512060485" lon="1.404475867909889"><ele>440.0</ele><time>2026-03-30T09:43:01Z</time></trkpt><trkpt lat="41.811389532308446" lon="1.4043729091929615"><ele>440.49999999999994</ele><time>2026-03-30T09:43:02Z</time></trkpt><trkpt lat="41.811383878689455" lon="1.4042798029612429"><ele>441.0</ele><time>2026-03-30T09:43:03Z</time></trkpt><trkpt lat="41.81138249216259" lon="1.4041926601865622"><ele>441.5</ele><time>2026-03-30T09:43:04Z</time></trkpt><trkpt lat="41.81137009703688" lon="1.4040421734162503"><ele>442.0</ele><time>2026-03-30T09:43:06Z</time></trkpt><trkpt lat="41.81131616423938" lon="1.4039862247212533"><ele>442.49999999999994</ele><time>2026-03-30T09:43:07Z</time></trkpt><trkpt lat="41.81123453002083" lon="1.4039782458994168"><ele>443.0</ele><time>2026-03-30T09:43:08Z</time></trkpt><trkpt lat="41.81114325978268" lon="1.4040326944202386"><ele>442.99999999999994</ele><time>2026-03-30T09:43:09Z</time></trkpt><trkpt lat="41.811057770369665" lon="1.4040958706076245"><ele>443.0</ele><time>2026-03-30T09:43:10Z</time></trkpt><trkpt lat="41.81097364349045" lon="1.404136127970036"><ele>443.0</ele><time>2026-03-30T09:43:11Z</time></trkpt><trkpt lat="41.81089122754296" lon="1.4041694693128182"><ele>443.0</ele><time>2026-03-30T09:43:12Z</time></trkpt><trkpt lat="41.810810435668685" lon="1.404173215231629"><ele>442.99999999999994</ele><time>2026-03-30T09:43:13Z</time></trkpt><trkpt lat="41.810733155264195" lon="1.4041439679176067"><ele>443.0</ele><time>2026-03-30T09:43:14Z</time></trkpt><trkpt lat="41.810655306325906" lon="1.4041221840904758"><ele>443.16666666666663</ele><time>2026-03-30T09:43:15Z</time></trkpt><trkpt lat="41.810578484367774" lon="1.4041060706472563"><ele>443.3333333333333</ele><time>2026-03-30T09:43:16Z</time></trkpt><trkpt lat="41.810489970457986" lon="1.404091445826364"><ele>443.5</ele><time>2026-03-30T09:43:17Z</time></trkpt><trkpt lat="41.81040066178732" lon="1.4040545695953808"><ele>443.66666666666663</ele><time>2026-03-30T09:43:18Z</time></trkpt><trkpt lat="41.81031695874622" lon="1.4040307127624367"><ele>443.8333333333333</ele><time>2026-03-30T09:43:19Z</time></trkpt><trkpt lat="41.81024567259907" lon="1.4040002566922614"><ele>444.0</ele><time>2026-03-30T09:43:20Z</time></trkpt><trkpt lat="41.81018254017248" lon="1.4039471572377815"><ele>443.6</ele><time>2026-03-30T09:43:21Z</time></trkpt><trkpt lat="41.810104986004845" lon="1.403892569031619"><ele>443.2</ele><time>2026-03-30T09:43:22Z</time></trkpt><trkpt lat="41.810036182724296" lon="1.4038214998004435"><ele>442.80000000000007</ele><time>2026-03-30T09:43:23Z</time></trkpt><trkpt lat="41.809959340104676" lon="1.4037499937167712"><ele>442.40000000000003</ele><time>2026-03-30T09:43:24Z</time></trkpt><trkpt lat="41.80987448737174" lon="1.4036907381622918"><ele>442.0</ele><time>2026-03-30T09:43:25Z</time></trkpt><trkpt lat="41.80979476559858" lon="1.4036086720886927"><ele>442.00000000000006</ele><time>2026-03-30T09:43:26Z</time></trkpt><trkpt lat="41.80971166480442" lon="1.4035382725221377"><ele>442.0</ele><time>2026-03-30T09:43:27Z</time></trkpt><trkpt lat="41.80963783436905" lon="1.4034712969210017"><ele>442.0</ele><time>2026-03-30T09:43:28Z</time></trkpt><trkpt lat="41.80958322484617" lon="1.4034051923390118"><ele>442.0</ele><time>2026-03-30T09:43:29Z</time></trkpt><trkpt lat="41.80951321721898" lon="1.4033430073230306"><ele>442.00000000000006</ele><time>2026-03-30T09:43:30Z</time></trkpt><trkpt lat="41.80944066222029" lon="1.4032888383741817"><ele>442.0</ele><time>2026-03-30T09:43:31Z</time></trkpt><trkpt lat="41.8093993988945" lon="1.403223334267227"><ele>442.0</ele><time>2026-03-30T09:43:32Z</time></trkpt><trkpt lat="41.8093481192778" lon="1.4031575158371654"><ele>442.00000000000006</ele><time>2026-03-30T09:43:36Z</time></trkpt><trkpt lat="41.809202720799696" lon="1.4031086921566231"><ele>442.00000000000006</ele><time>2026-03-30T09:43:40Z</time></trkpt><trkpt lat="41.809099185058045" lon="1.4031458910835828"><ele>442.0</ele><time>2026-03-30T09:43:41Z</time></trkpt><trkpt lat="41.80900624032934" lon="1.4031797130831518"><ele>442.0</ele><time>2026-03-30T09:43:42Z</time></trkpt><trkpt lat="41.80890806440153" lon="1.403210517694474"><ele>441.8</ele><time>2026-03-30T09:43:43Z</time></trkpt><trkpt lat="41.80879750920906" lon="1.4032420735676612"><ele>441.6</ele><time>2026-03-30T09:43:44Z</time></trkpt><trkpt lat="41.80868976788502" lon="1.4032715249876353"><ele>441.40000000000003</ele><time>2026-03-30T09:43:45Z</time></trkpt><trkpt lat="41.8085926540865" lon="1.4032985390438837"><ele>441.20000000000005</ele><time>2026-03-30T09:43:46Z</time></trkpt><trkpt lat="41.80847908212909" lon="1.403334348754427"><ele>441.0</ele><time>2026-03-30T09:43:47Z</time></trkpt><trkpt lat="41.80832992492619" lon="1.4033834531245692"><ele>441.0</ele><time>2026-03-30T09:43:48Z</time></trkpt><trkpt lat="41.808150406028254" lon="1.403435929764187"><ele>441.0</ele><time>2026-03-30T09:43:49Z</time></trkpt><trkpt lat="41.80796181803506" lon="1.403484705996831"><ele>441.0</ele><time>2026-03-30T09:43:50Z</time></trkpt><trkpt lat="41.80779971367867" lon="1.4035288115339088"><ele>440.5</ele><time>2026-03-30T09:43:51Z</time></trkpt><trkpt lat="41.80765885312253" lon="1.403573052014921"><ele>440.0</ele><time>2026-03-30T09:43:52Z</time></trkpt><trkpt lat="41.80751394893414" lon="1.4036197146031708"><ele>439.5</ele><time>2026-03-30T09:43:53Z</time></trkpt><trkpt lat="41.80736319831551" lon="1.403663704977719"><ele>439.0</ele><time>2026-03-30T09:43:54Z</time></trkpt><trkpt lat="41.80721036577068" lon="1.4037075224313065"><ele>439.0</ele><time>2026-03-30T09:43:55Z</time></trkpt><trkpt lat="41.80705822685758" lon="1.403750023569628"><ele>439.0</ele><time>2026-03-30T09:43:56Z</time></trkpt><trkpt lat="41.80690152605816" lon="1.4037978686259616"><ele>439.0</ele><time>2026-03-30T09:43:57Z</time></trkpt><trkpt lat="41.80673801342222" lon="1.403846541313818"><ele>439.6666666666667</ele><time>2026-03-30T09:43:58Z</time></trkpt><trkpt lat="41.80656003946234" lon="1.4038969816496218"><ele>440.33333333333337</ele><time>2026-03-30T09:43:59Z</time></trkpt><trkpt lat="41.80638236408632" lon="1.4039493424871998"><ele>441.0</ele><time>2026-03-30T09:44:00Z</time></trkpt><trkpt lat="41.806192744338325" lon="1.4040061952640608"><ele>441.0</ele><time>2026-03-30T09:44:01Z</time></trkpt><trkpt lat="41.80601309779818" lon="1.4040623419198612"><ele>441.0</ele><time>2026-03-30T09:44:02Z</time></trkpt><trkpt lat="41.80583617899307" lon="1.4041289687458869"><ele>441.0</ele><time>2026-03-30T09:44:03Z</time></trkpt><trkpt lat="41.80566915496462" lon="1.4042042330442823"><ele>440.66666666666663</ele><time>2026-03-30T09:44:04Z</time></trkpt><trkpt lat="41.80551446829226" lon="1.404291078716532"><ele>440.3333333333333</ele><time>2026-03-30T09:44:05Z</time></trkpt><trkpt lat="41.805371783184405" lon="1.4043753490595474"><ele>440.0</ele><time>2026-03-30T09:44:06Z</time></trkpt><trkpt lat="41.80523409733899" lon="1.4044435084032703"><ele>439.0</ele><time>2026-03-30T09:44:07Z</time></trkpt><trkpt lat="41.80510374565579" lon="1.404473245044886"><ele>438.0</ele><time>2026-03-30T09:44:08Z</time></trkpt><trkpt lat="41.80498435661481" lon="1.4044455872755017"><ele>437.0</ele><time>2026-03-30T09:44:09Z</time></trkpt><trkpt lat="41.80487423273713" lon="1.4043754875255403"><ele>436.0</ele><time>2026-03-30T09:44:10Z</time></trkpt><trkpt lat="41.80474687520002" lon="1.4042808091185468"><ele>436.0</ele><time>2026-03-30T09:44:11Z</time></trkpt><trkpt lat="41.8045835658049" lon="1.4041787687614757"><ele>436.0</ele><time>2026-03-30T09:44:12Z</time></trkpt><trkpt lat="41.80438962967957" lon="1.4040903297019849"><ele>436.0</ele><time>2026-03-30T09:44:13Z</time></trkpt><trkpt lat="41.8041668665066" lon="1.4040226596227334"><ele>436.33333333333337</ele><time>2026-03-30T09:44:14Z</time></trkpt><trkpt lat="41.803947878463624" lon="1.4039937903121038"><ele>436.66666666666663</ele><time>2026-03-30T09:44:15Z</time></trkpt><trkpt lat="41.80375222970854" lon="1.4039949724506873"><ele>437.0</ele><time>2026-03-30T09:44:16Z</time></trkpt><trkpt lat="41.803571421057995" lon="1.404001784943102"><ele>437.66666666666663</ele><time>2026-03-30T09:44:17Z</time></trkpt><trkpt lat="41.80338898765418" lon="1.4039783151810898"><ele>438.33333333333337</ele><time>2026-03-30T09:44:18Z</time></trkpt><trkpt lat="41.803186134769284" lon="1.403951821311945"><ele>439.0</ele><time>2026-03-30T09:44:19Z</time></trkpt><trkpt lat="41.80297428600301" lon="1.403907539350153"><ele>439.0</ele><time>2026-03-30T09:44:20Z</time></trkpt><trkpt lat="41.80276653980926" lon="1.4038430773981225"><ele>439.0</ele><time>2026-03-30T09:44:21Z</time></trkpt><trkpt lat="41.80255722033374" lon="1.403766978841307"><ele>439.0</ele><time>2026-03-30T09:44:22Z</time></trkpt><trkpt lat="41.80234775506902" lon="1.4036878337792058"><ele>440.5</ele><time>2026-03-30T09:44:23Z</time></trkpt><trkpt lat="41.80211903915887" lon="1.4036016780935021"><ele>442.0</ele><time>2026-03-30T09:44:24Z</time></trkpt><trkpt lat="41.80186658162776" lon="1.403522369936092"><ele>442.5</ele><time>2026-03-30T09:44:25Z</time></trkpt><trkpt lat="41.80159251994677" lon="1.4034431765840252"><ele>443.0</ele><time>2026-03-30T09:44:26Z</time></trkpt><trkpt lat="41.80130695948681" lon="1.4033659879728806"><ele>443.0</ele><time>2026-03-30T09:44:27Z</time></trkpt><trkpt lat="41.801030268362325" lon="1.4033031672055558"><ele>443.0</ele><time>2026-03-30T09:44:28Z</time></trkpt><trkpt lat="41.8007547570509" lon="1.403250638495585"><ele>442.5</ele><time>2026-03-30T09:44:29Z</time></trkpt><trkpt lat="41.800486825151104" lon="1.4032093030313912"><ele>442.0</ele><time>2026-03-30T09:44:30Z</time></trkpt><trkpt lat="41.80022534678151" lon="1.4031777703743098"><ele>441.5</ele><time>2026-03-30T09:44:31Z</time></trkpt><trkpt lat="41.79996713915598" lon="1.4031531857719792"><ele>441.0</ele><time>2026-03-30T09:44:32Z</time></trkpt><trkpt lat="41.79971390356885" lon="1.4031339657616277"><ele>441.0</ele><time>2026-03-30T09:44:33Z</time></trkpt><trkpt lat="41.79946117566734" lon="1.4031247309896118"><ele>441.0</ele><time>2026-03-30T09:44:34Z</time></trkpt><trkpt lat="41.799210676001415" lon="1.4031221142121584"><ele>443.0</ele><time>2026-03-30T09:44:35Z</time></trkpt><trkpt lat="41.79895880483155" lon="1.4031321357971067"><ele>445.0</ele><time>2026-03-30T09:44:36Z</time></trkpt><trkpt lat="41.798711894916565" lon="1.4031731337121334"><ele>446.5</ele><time>2026-03-30T09:44:37Z</time></trkpt><trkpt lat="41.79846913161419" lon="1.4031836828411872"><ele>448.0</ele><time>2026-03-30T09:44:38Z</time></trkpt><trkpt lat="41.79823163369775" lon="1.4031838426511412"><ele>448.0</ele><time>2026-03-30T09:44:39Z</time></trkpt><trkpt lat="41.79799538955687" lon="1.4031605103560858"><ele>448.0</ele><time>2026-03-30T09:44:40Z</time></trkpt><trkpt lat="41.79776497001653" lon="1.4030695094911811"><ele>453.5</ele><time>2026-03-30T09:44:41Z</time></trkpt><trkpt lat="41.797543742566305" lon="1.402958789851285"><ele>459.0</ele><time>2026-03-30T09:44:42Z</time></trkpt><trkpt lat="41.797335577251324" lon="1.4028084765714717"><ele>459.0</ele><time>2026-03-30T09:44:43Z</time></trkpt><trkpt lat="41.79714902315906" lon="1.4026279323372657"><ele>459.0</ele><time>2026-03-30T09:44:44Z</time></trkpt><trkpt lat="41.796966474009075" lon="1.4024227946335253"><ele>459.0</ele><time>2026-03-30T09:44:45Z</time></trkpt><trkpt lat="41.79678030247019" lon="1.4022329229441486"><ele>459.0</ele><time>2026-03-30T09:44:46Z</time></trkpt><trkpt lat="41.79662083435927" lon="1.4020272042183302"><ele>459.0</ele><time>2026-03-30T09:44:47Z</time></trkpt><trkpt lat="41.796452929004815" lon="1.401855048483916"><ele>459.0</ele><time>2026-03-30T09:44:48Z</time></trkpt><trkpt lat="41.79626004061118" lon="1.4017301232691357"><ele>459.0</ele><time>2026-03-30T09:44:49Z</time></trkpt><trkpt lat="41.796039753008785" lon="1.4016816263009602"><ele>458.0</ele><time>2026-03-30T09:44:50Z</time></trkpt><trkpt lat="41.795818742152306" lon="1.4016555674955458"><ele>457.0</ele><time>2026-03-30T09:44:51Z</time></trkpt><trkpt lat="41.795599537941136" lon="1.4016218503257623"><ele>456.0</ele><time>2026-03-30T09:44:52Z</time></trkpt><trkpt lat="41.795386549103505" lon="1.4015991739469613"><ele>454.66666666666663</ele><time>2026-03-30T09:44:53Z</time></trkpt><trkpt lat="41.79516992504459" lon="1.4015741465499805"><ele>453.3333333333333</ele><time>2026-03-30T09:44:54Z</time></trkpt><trkpt lat="41.794956898566134" lon="1.4014917882667923"><ele>452.0</ele><time>2026-03-30T09:44:55Z</time></trkpt><trkpt lat="41.79477225331661" lon="1.401366881942748"><ele>452.5</ele><time>2026-03-30T09:44:56Z</time></trkpt><trkpt lat="41.794598912088794" lon="1.4011629804133763"><ele>453.0</ele><time>2026-03-30T09:44:57Z</time></trkpt><trkpt lat="41.79444282531362" lon="1.400909789190672"><ele>452.5</ele><time>2026-03-30T09:44:58Z</time></trkpt><trkpt lat="41.794291625988095" lon="1.4006231274739054"><ele>452.0</ele><time>2026-03-30T09:44:59Z</time></trkpt><trkpt lat="41.79412880361779" lon="1.400332733085702"><ele>453.0</ele><time>2026-03-30T09:45:00Z</time></trkpt><trkpt lat="41.79396814263607" lon="1.4000445712209628"><ele>454.0</ele><time>2026-03-30T09:45:01Z</time></trkpt><trkpt lat="41.793804622507245" lon="1.3997655558054412"><ele>453.5</ele><time>2026-03-30T09:45:02Z</time></trkpt><trkpt lat="41.79363888549267" lon="1.3994861011843547"><ele>453.0</ele><time>2026-03-30T09:45:03Z</time></trkpt><trkpt lat="41.793477837235564" lon="1.3992099233122648"><ele>453.5</ele><time>2026-03-30T09:45:04Z</time></trkpt><trkpt lat="41.79331762717846" lon="1.3989319529207989"><ele>454.0</ele><time>2026-03-30T09:45:05Z</time></trkpt><trkpt lat="41.79317062294627" lon="1.398644203409403"><ele>454.0</ele><time>2026-03-30T09:45:06Z</time></trkpt><trkpt lat="41.79305241120291" lon="1.3983430658101956"><ele>454.0</ele><time>2026-03-30T09:45:07Z</time></trkpt><trkpt lat="41.79295900763505" lon="1.3980332416861034"><ele>454.0</ele><time>2026-03-30T09:45:08Z</time></trkpt><trkpt lat="41.792874178803515" lon="1.3977164946054994"><ele>454.0</ele><time>2026-03-30T09:45:09Z</time></trkpt><trkpt lat="41.79278640525156" lon="1.39740076315963"><ele>455.0</ele><time>2026-03-30T09:45:10Z</time></trkpt><trkpt lat="41.79269042871885" lon="1.3970932123831634"><ele>456.0</ele><time>2026-03-30T09:45:11Z</time></trkpt><trkpt lat="41.792590197046415" lon="1.3968005298372392"><ele>457.0</ele><time>2026-03-30T09:45:12Z</time></trkpt><trkpt lat="41.792470666969734" lon="1.3965174566901697"><ele>458.0</ele><time>2026-03-30T09:45:13Z</time></trkpt><trkpt lat="41.792322586647295" lon="1.396240019016262"><ele>458.0</ele><time>2026-03-30T09:45:14Z</time></trkpt><trkpt lat="41.79214748895706" lon="1.3960035825644914"><ele>458.0</ele><time>2026-03-30T09:45:15Z</time></trkpt><trkpt lat="41.79195724486664" lon="1.3957920186915802"><ele>459.5</ele><time>2026-03-30T09:45:16Z</time></trkpt><trkpt lat="41.79176417991248" lon="1.3955777724772327"><ele>461.0</ele><time>2026-03-30T09:45:17Z</time></trkpt><trkpt lat="41.79157670447738" lon="1.3953560691036344"><ele>461.0</ele><time>2026-03-30T09:45:18Z</time></trkpt><trkpt lat="41.791395185028634" lon="1.3951250744578676"><ele>461.0</ele><time>2026-03-30T09:45:19Z</time></trkpt><trkpt lat="41.79122001360646" lon="1.394882763749508"><ele>460.5</ele><time>2026-03-30T09:45:20Z</time></trkpt><trkpt lat="41.79104564052651" lon="1.3946359202757295"><ele>460.0</ele><time>2026-03-30T09:45:21Z</time></trkpt><trkpt lat="41.79087134110122" lon="1.3943914120393"><ele>462.5</ele><time>2026-03-30T09:45:22Z</time></trkpt><trkpt lat="41.79070489084701" lon="1.394134794883579"><ele>465.0</ele><time>2026-03-30T09:45:23Z</time></trkpt><trkpt lat="41.790543691485624" lon="1.3938763637464981"><ele>463.0</ele><time>2026-03-30T09:45:24Z</time></trkpt><trkpt lat="41.79038694355203" lon="1.3936257919443258"><ele>461.0</ele><time>2026-03-30T09:45:25Z</time></trkpt><trkpt lat="41.790246759641136" lon="1.393393169040766"><ele>461.66666666666663</ele><time>2026-03-30T09:45:26Z</time></trkpt><trkpt lat="41.79010623779945" lon="1.3931708304107757"><ele>462.33333333333337</ele><time>2026-03-30T09:45:27Z</time></trkpt><trkpt lat="41.789967480203984" lon="1.39296284248852"><ele>463.0</ele><time>2026-03-30T09:45:28Z</time></trkpt><trkpt lat="41.789833527696366" lon="1.3927965770870094"><ele>463.0</ele><time>2026-03-30T09:45:29Z</time></trkpt><trkpt lat="41.78967476338134" lon="1.3926749711751618"><ele>463.0</ele><time>2026-03-30T09:45:30Z</time></trkpt><trkpt lat="41.78946850274602" lon="1.3925829620851065"><ele>463.0</ele><time>2026-03-30T09:45:31Z</time></trkpt><trkpt lat="41.789242040405504" lon="1.392518863048112"><ele>466.5</ele><time>2026-03-30T09:45:32Z</time></trkpt><trkpt lat="41.789008993313125" lon="1.3924746185928525"><ele>470.0</ele><time>2026-03-30T09:45:33Z</time></trkpt><trkpt lat="41.78877689401493" lon="1.3924430144831916"><ele>470.0</ele><time>2026-03-30T09:45:34Z</time></trkpt><trkpt lat="41.788545266721016" lon="1.3924325440937415"><ele>470.0</ele><time>2026-03-30T09:45:35Z</time></trkpt><trkpt lat="41.78830824028875" lon="1.3924272458079205"><ele>472.0</ele><time>2026-03-30T09:45:36Z</time></trkpt><trkpt lat="41.788054513113245" lon="1.3924241224787035"><ele>474.0</ele><time>2026-03-30T09:45:37Z</time></trkpt><trkpt lat="41.78779218812287" lon="1.392447780216458"><ele>473.5</ele><time>2026-03-30T09:45:38Z</time></trkpt><trkpt lat="41.7875405547488" lon="1.3924865544227123"><ele>473.0</ele><time>2026-03-30T09:45:39Z</time></trkpt><trkpt lat="41.78727340623273" lon="1.3925418913261927"><ele>473.0</ele><time>2026-03-30T09:45:40Z</time></trkpt><trkpt lat="41.787009473002875" lon="1.3925962082116743"><ele>473.0</ele><time>2026-03-30T09:45:41Z</time></trkpt><trkpt lat="41.78674705273519" lon="1.392651141091873"><ele>472.0</ele><time>2026-03-30T09:45:42Z</time></trkpt><trkpt lat="41.786485438908414" lon="1.3926981589135068"><ele>471.0</ele><time>2026-03-30T09:45:43Z</time></trkpt><trkpt lat="41.7862185033289" lon="1.392736860400584"><ele>471.0</ele><time>2026-03-30T09:45:44Z</time></trkpt><trkpt lat="41.785958023133354" lon="1.3927854501631762"><ele>471.0</ele><time>2026-03-30T09:45:45Z</time></trkpt><trkpt lat="41.78570135041076" lon="1.3928514393785842"><ele>471.0</ele><time>2026-03-30T09:45:46Z</time></trkpt><trkpt lat="41.785446203309846" lon="1.3929182815568966"><ele>471.0</ele><time>2026-03-30T09:45:47Z</time></trkpt><trkpt lat="41.78519092778096" lon="1.3929811409832054"><ele>475.5</ele><time>2026-03-30T09:45:48Z</time></trkpt><trkpt lat="41.784939310340945" lon="1.3930515179163219"><ele>480.0</ele><time>2026-03-30T09:45:49Z</time></trkpt><trkpt lat="41.784683830911796" lon="1.3931070820578497"><ele>480.0</ele><time>2026-03-30T09:45:50Z</time></trkpt><trkpt lat="41.784425225427825" lon="1.3931587368164033"><ele>480.0</ele><time>2026-03-30T09:45:51Z</time></trkpt><trkpt lat="41.784164998375886" lon="1.3932041158363542"><ele>477.5</ele><time>2026-03-30T09:45:52Z</time></trkpt><trkpt lat="41.78390753543738" lon="1.3932430744916686"><ele>475.0</ele><time>2026-03-30T09:45:53Z</time></trkpt><trkpt lat="41.78364928882546" lon="1.3932785091912783"><ele>475.5</ele><time>2026-03-30T09:45:54Z</time></trkpt><trkpt lat="41.7833921965449" lon="1.3933114634386916"><ele>476.0</ele><time>2026-03-30T09:45:55Z</time></trkpt><trkpt lat="41.783138076173174" lon="1.393344383063129"><ele>476.0</ele><time>2026-03-30T09:45:56Z</time></trkpt><trkpt lat="41.78288244966885" lon="1.3933742804944802"><ele>476.0</ele><time>2026-03-30T09:45:57Z</time></trkpt><trkpt lat="41.78262994517976" lon="1.3933890495936776"><ele>477.0</ele><time>2026-03-30T09:45:58Z</time></trkpt><trkpt lat="41.782375460363845" lon="1.3933708861780605"><ele>478.0</ele><time>2026-03-30T09:45:59Z</time></trkpt><trkpt lat="41.78211670361579" lon="1.3933180622899708"><ele>478.0</ele><time>2026-03-30T09:46:00Z</time></trkpt><trkpt lat="41.78186993000039" lon="1.393194824367527"><ele>478.0</ele><time>2026-03-30T09:46:01Z</time></trkpt><trkpt lat="41.78162840694177" lon="1.3930866708568606"><ele>484.0</ele><time>2026-03-30T09:46:02Z</time></trkpt><trkpt lat="41.78139246866834" lon="1.392959758978456"><ele>490.0</ele><time>2026-03-30T09:46:03Z</time></trkpt><trkpt lat="41.78116613942104" lon="1.3928141225130317"><ele>490.0</ele><time>2026-03-30T09:46:04Z</time></trkpt><trkpt lat="41.78094281549269" lon="1.3926672517353726"><ele>490.0</ele><time>2026-03-30T09:46:05Z</time></trkpt><trkpt lat="41.780718054982174" lon="1.3925362248587547"><ele>490.0</ele><time>2026-03-30T09:46:06Z</time></trkpt><trkpt lat="41.78049695540699" lon="1.3923928762935889"><ele>490.0</ele><time>2026-03-30T09:46:07Z</time></trkpt><trkpt lat="41.780283062699965" lon="1.3922324951089815"><ele>493.0</ele><time>2026-03-30T09:46:08Z</time></trkpt><trkpt lat="41.78006170963089" lon="1.3920902652396636"><ele>496.0</ele><time>2026-03-30T09:46:09Z</time></trkpt><trkpt lat="41.779832300785465" lon="1.3919745858613444"><ele>496.0</ele><time>2026-03-30T09:46:10Z</time></trkpt><trkpt lat="41.779608338699404" lon="1.3918470013748627"><ele>496.0</ele><time>2026-03-30T09:46:11Z</time></trkpt><trkpt lat="41.77938314212605" lon="1.3917043449765105"><ele>495.0</ele><time>2026-03-30T09:46:12Z</time></trkpt><trkpt lat="41.77913793046741" lon="1.3915957881886003"><ele>494.0</ele><time>2026-03-30T09:46:13Z</time></trkpt><trkpt lat="41.778900536847196" lon="1.3914596096321994"><ele>498.0</ele><time>2026-03-30T09:46:14Z</time></trkpt><trkpt lat="41.77866928889582" lon="1.3913338181009622"><ele>502.0</ele><time>2026-03-30T09:46:15Z</time></trkpt><trkpt lat="41.778455692948874" lon="1.391196133806463"><ele>502.0</ele><time>2026-03-30T09:46:16Z</time></trkpt><trkpt lat="41.778246687073725" lon="1.391052246702888"><ele>502.0</ele><time>2026-03-30T09:46:17Z</time></trkpt><trkpt lat="41.77804460921359" lon="1.3908727978587152"><ele>502.0</ele><time>2026-03-30T09:46:18Z</time></trkpt><trkpt lat="41.777860081382926" lon="1.3906639626112836"><ele>502.0</ele><time>2026-03-30T09:46:19Z</time></trkpt><trkpt lat="41.77769819119898" lon="1.390432761633612"><ele>504.0</ele><time>2026-03-30T09:46:20Z</time></trkpt><trkpt lat="41.77755034108599" lon="1.390188372614246"><ele>506.0</ele><time>2026-03-30T09:46:21Z</time></trkpt><trkpt lat="41.777397786205775" lon="1.3899604841915505"><ele>506.0</ele><time>2026-03-30T09:46:22Z</time></trkpt><trkpt lat="41.77724932513256" lon="1.3897323044690428"><ele>506.0</ele><time>2026-03-30T09:46:23Z</time></trkpt><trkpt lat="41.77707567702534" lon="1.3895464547087504"><ele>506.0</ele><time>2026-03-30T09:46:24Z</time></trkpt><trkpt lat="41.776873592392484" lon="1.389413366418094"><ele>508.0</ele><time>2026-03-30T09:46:25Z</time></trkpt><trkpt lat="41.77665261910979" lon="1.3893305195335985"><ele>510.0</ele><time>2026-03-30T09:46:26Z</time></trkpt><trkpt lat="41.77643612922265" lon="1.3892625430081837"><ele>510.0</ele><time>2026-03-30T09:46:27Z</time></trkpt><trkpt lat="41.77623430444947" lon="1.3891571997272034"><ele>510.0</ele><time>2026-03-30T09:46:28Z</time></trkpt><trkpt lat="41.7760318006129" lon="1.3890698225036378"><ele>510.0</ele><time>2026-03-30T09:46:29Z</time></trkpt><trkpt lat="41.77583239239221" lon="1.3889822100668348"><ele>511.33333333333337</ele><time>2026-03-30T09:46:30Z</time></trkpt><trkpt lat="41.7756244552848" lon="1.3888895136493424"><ele>512.6666666666667</ele><time>2026-03-30T09:46:31Z</time></trkpt><trkpt lat="41.775414528569854" lon="1.3887850531165875"><ele>514.0</ele><time>2026-03-30T09:46:32Z</time></trkpt><trkpt lat="41.7752186904463" lon="1.3886592490526761"><ele>517.0</ele><time>2026-03-30T09:46:33Z</time></trkpt><trkpt lat="41.77503160627151" lon="1.3885087053650027"><ele>520.0</ele><time>2026-03-30T09:46:34Z</time></trkpt><trkpt lat="41.77484082144372" lon="1.3883297835435267"><ele>520.0</ele><time>2026-03-30T09:46:35Z</time></trkpt><trkpt lat="41.77464509182039" lon="1.388135130930261"><ele>520.0</ele><time>2026-03-30T09:46:36Z</time></trkpt><trkpt lat="41.774441764037704" lon="1.3879491160955992"><ele>521.6666666666667</ele><time>2026-03-30T09:46:37Z</time></trkpt><trkpt lat="41.77425856912466" lon="1.3877598200713157"><ele>523.3333333333334</ele><time>2026-03-30T09:46:38Z</time></trkpt><trkpt lat="41.77408505280669" lon="1.3875882013919036"><ele>525.0</ele><time>2026-03-30T09:46:39Z</time></trkpt><trkpt lat="41.773921096561814" lon="1.3874515780280243"><ele>525.0</ele><time>2026-03-30T09:46:40Z</time></trkpt><trkpt lat="41.773754370095695" lon="1.3873688494116065"><ele>525.0</ele><time>2026-03-30T09:46:41Z</time></trkpt><trkpt lat="41.77357802729681" lon="1.3873530888782166"><ele>525.0</ele><time>2026-03-30T09:46:42Z</time></trkpt><trkpt lat="41.773396797011785" lon="1.3874069809817402"><ele>526.6666666666666</ele><time>2026-03-30T09:46:43Z</time></trkpt><trkpt lat="41.77322089541309" lon="1.3875298999106316"><ele>528.3333333333333</ele><time>2026-03-30T09:46:44Z</time></trkpt><trkpt lat="41.77305991110747" lon="1.3876997967209235"><ele>530.0</ele><time>2026-03-30T09:46:45Z</time></trkpt><trkpt lat="41.77291661279627" lon="1.3879188448868043"><ele>528.5</ele><time>2026-03-30T09:46:46Z</time></trkpt><trkpt lat="41.77276590064307" lon="1.3881567390165557"><ele>527.0</ele><time>2026-03-30T09:46:47Z</time></trkpt><trkpt lat="41.77259950956364" lon="1.3883854570015544"><ele>527.0</ele><time>2026-03-30T09:46:48Z</time></trkpt><trkpt lat="41.772442306873046" lon="1.3885872915401962"><ele>527.0</ele><time>2026-03-30T09:46:49Z</time></trkpt><trkpt lat="41.77229424364534" lon="1.3887824767701153"><ele>527.0</ele><time>2026-03-30T09:46:50Z</time></trkpt><trkpt lat="41.77214290793754" lon="1.388983595803106"><ele>527.0</ele><time>2026-03-30T09:46:51Z</time></trkpt><trkpt lat="41.77198956263933" lon="1.389186455370278"><ele>527.0</ele><time>2026-03-30T09:46:52Z</time></trkpt><trkpt lat="41.77183850612731" lon="1.3893795571498113"><ele>527.0</ele><time>2026-03-30T09:46:53Z</time></trkpt><trkpt lat="41.7716902191606" lon="1.3895456228835954"><ele>528.6666666666666</ele><time>2026-03-30T09:46:54Z</time></trkpt><trkpt lat="41.77153044054653" lon="1.3896864166819232"><ele>530.3333333333334</ele><time>2026-03-30T09:46:55Z</time></trkpt><trkpt lat="41.771346300418045" lon="1.3897847342114278"><ele>532.0</ele><time>2026-03-30T09:46:56Z</time></trkpt><trkpt lat="41.77119459810521" lon="1.3899258985930993"><ele>532.5</ele><time>2026-03-30T09:46:57Z</time></trkpt><trkpt lat="41.77094286326659" lon="1.389805824484274"><ele>533.0</ele><time>2026-03-30T09:46:58Z</time></trkpt><trkpt lat="41.77074813625843" lon="1.3897241109134155"><ele>536.0</ele><time>2026-03-30T09:46:59Z</time></trkpt><trkpt lat="41.77056328725439" lon="1.389583998356841"><ele>539.0</ele><time>2026-03-30T09:47:00Z</time></trkpt><trkpt lat="41.77037884109492" lon="1.3893999087623639"><ele>542.0</ele><time>2026-03-30T09:47:01Z</time></trkpt><trkpt lat="41.77019203890152" lon="1.3891933128162741"><ele>540.0</ele><time>2026-03-30T09:47:02Z</time></trkpt><trkpt lat="41.770003481602906" lon="1.388995996544093"><ele>538.0</ele><time>2026-03-30T09:47:03Z</time></trkpt><trkpt lat="41.7698019078388" lon="1.3887866435886271"><ele>542.5</ele><time>2026-03-30T09:47:04Z</time></trkpt><trkpt lat="41.76960439832957" lon="1.3885846735881033"><ele>547.0</ele><time>2026-03-30T09:47:05Z</time></trkpt><trkpt lat="41.76942105407415" lon="1.3884164411014355"><ele>545.6666666666667</ele><time>2026-03-30T09:47:06Z</time></trkpt><trkpt lat="41.76923404181651" lon="1.3882615387679993"><ele>544.3333333333334</ele><time>2026-03-30T09:47:07Z</time></trkpt><trkpt lat="41.769038572843634" lon="1.3881152052642844"><ele>543.0</ele><time>2026-03-30T09:47:08Z</time></trkpt><trkpt lat="41.76882718009035" lon="1.3879692417642762"><ele>546.0</ele><time>2026-03-30T09:47:09Z</time></trkpt><trkpt lat="41.76862056442967" lon="1.3878249754406295"><ele>549.0</ele><time>2026-03-30T09:47:10Z</time></trkpt><trkpt lat="41.76842608992959" lon="1.3876938358562267"><ele>549.0</ele><time>2026-03-30T09:47:11Z</time></trkpt><trkpt lat="41.76824804692078" lon="1.3875742027082005"><ele>549.0</ele><time>2026-03-30T09:47:12Z</time></trkpt><trkpt lat="41.76809586356601" lon="1.387437983439796"><ele>549.0</ele><time>2026-03-30T09:47:13Z</time></trkpt><trkpt lat="41.76798443913247" lon="1.3872760185464126"><ele>551.6666666666666</ele><time>2026-03-30T09:47:14Z</time></trkpt><trkpt lat="41.76790427831827" lon="1.3870881114981306"><ele>554.3333333333333</ele><time>2026-03-30T09:47:15Z</time></trkpt><trkpt lat="41.76783250302847" lon="1.386879356162033"><ele>557.0</ele><time>2026-03-30T09:47:16Z</time></trkpt><trkpt lat="41.767763192419864" lon="1.3866643427640732"><ele>555.6666666666666</ele><time>2026-03-30T09:47:17Z</time></trkpt><trkpt lat="41.76769172584803" lon="1.3864494678095776"><ele>554.3333333333334</ele><time>2026-03-30T09:47:18Z</time></trkpt><trkpt lat="41.7676151311406" lon="1.3862309990906847"><ele>553.0</ele><time>2026-03-30T09:47:19Z</time></trkpt><trkpt lat="41.76753941679396" lon="1.385999022731285"><ele>553.0</ele><time>2026-03-30T09:47:20Z</time></trkpt><trkpt lat="41.76747556921064" lon="1.3857483094563874"><ele>553.0</ele><time>2026-03-30T09:47:21Z</time></trkpt><trkpt lat="41.767421382963725" lon="1.3854806394656014"><ele>553.0</ele><time>2026-03-30T09:47:22Z</time></trkpt><trkpt lat="41.767369493907545" lon="1.3852123612148115"><ele>554.3333333333334</ele><time>2026-03-30T09:47:23Z</time></trkpt><trkpt lat="41.767313444200475" lon="1.384940312638792"><ele>555.6666666666666</ele><time>2026-03-30T09:47:24Z</time></trkpt><trkpt lat="41.76725230508871" lon="1.3846539995537313"><ele>557.0</ele><time>2026-03-30T09:47:25Z</time></trkpt><trkpt lat="41.76718754557367" lon="1.3843493605681445"><ele>557.5</ele><time>2026-03-30T09:47:26Z</time></trkpt><trkpt lat="41.76712015762214" lon="1.3840266192914485"><ele>558.0</ele><time>2026-03-30T09:47:27Z</time></trkpt><trkpt lat="41.767049073270265" lon="1.3836911775696046"><ele>557.0</ele><time>2026-03-30T09:47:28Z</time></trkpt><trkpt lat="41.76697661214141" lon="1.383345753172632"><ele>556.0</ele><time>2026-03-30T09:47:29Z</time></trkpt><trkpt lat="41.76691143354533" lon="1.3830381346181904"><ele>558.3333333333334</ele><time>2026-03-30T09:47:30Z</time></trkpt><trkpt lat="41.76684948969779" lon="1.3827631925443986"><ele>560.6666666666666</ele><time>2026-03-30T09:47:31Z</time></trkpt><trkpt lat="41.76678607418964" lon="1.3824777265752073"><ele>563.0</ele><time>2026-03-30T09:47:32Z</time></trkpt><trkpt lat="41.766723764919725" lon="1.3821704775241301"><ele>563.6666666666666</ele><time>2026-03-30T09:47:33Z</time></trkpt><trkpt lat="41.766667560821055" lon="1.3818720137601994"><ele>564.3333333333334</ele><time>2026-03-30T09:47:34Z</time></trkpt><trkpt lat="41.76663022631656" lon="1.3815818178639159"><ele>565.0</ele><time>2026-03-30T09:47:35Z</time></trkpt><trkpt lat="41.76663631428899" lon="1.3812921406821645"><ele>566.0</ele><time>2026-03-30T09:47:36Z</time></trkpt><trkpt lat="41.766673015883555" lon="1.380992114021079"><ele>567.0</ele><time>2026-03-30T09:47:37Z</time></trkpt><trkpt lat="41.766730580308604" lon="1.380683853618039"><ele>567.0</ele><time>2026-03-30T09:47:38Z</time></trkpt><trkpt lat="41.7667913961467" lon="1.3803765546451574"><ele>567.0</ele><time>2026-03-30T09:47:39Z</time></trkpt><trkpt lat="41.76684179296061" lon="1.3801001810352316"><ele>567.0</ele><time>2026-03-30T09:47:40Z</time></trkpt><trkpt lat="41.76687369678482" lon="1.37985848990625"><ele>571.6666666666666</ele><time>2026-03-30T09:47:41Z</time></trkpt><trkpt lat="41.76685642807165" lon="1.3796316184203115"><ele>576.3333333333333</ele><time>2026-03-30T09:47:42Z</time></trkpt><trkpt lat="41.766797130054414" lon="1.379398616823576"><ele>581.0</ele><time>2026-03-30T09:47:43Z</time></trkpt><trkpt lat="41.76668062584444" lon="1.3791878759075784"><ele>581.0</ele><time>2026-03-30T09:47:44Z</time></trkpt><trkpt lat="41.76652311676031" lon="1.379026791524193"><ele>581.0</ele><time>2026-03-30T09:47:45Z</time></trkpt><trkpt lat="41.76633455493772" lon="1.3789233441265634"><ele>581.0</ele><time>2026-03-30T09:47:46Z</time></trkpt><trkpt lat="41.766127589265636" lon="1.3788990389871973"><ele>586.5</ele><time>2026-03-30T09:47:47Z</time></trkpt><trkpt lat="41.76590860594845" lon="1.3789474327599414"><ele>592.0</ele><time>2026-03-30T09:47:48Z</time></trkpt><trkpt lat="41.765700756330695" lon="1.379071913519984"><ele>592.0</ele><time>2026-03-30T09:47:49Z</time></trkpt><trkpt lat="41.765502770009824" lon="1.3792417539182573"><ele>592.0</ele><time>2026-03-30T09:47:50Z</time></trkpt><trkpt lat="41.765290417793565" lon="1.3794094274888218"><ele>594.5</ele><time>2026-03-30T09:47:51Z</time></trkpt><trkpt lat="41.76507328530381" lon="1.3795582964543538"><ele>597.0</ele><time>2026-03-30T09:47:52Z</time></trkpt><trkpt lat="41.76486920310916" lon="1.379694972309723"><ele>597.0</ele><time>2026-03-30T09:47:53Z</time></trkpt><trkpt lat="41.76467172170606" lon="1.3798380707579563"><ele>597.0</ele><time>2026-03-30T09:47:54Z</time></trkpt><trkpt lat="41.76447013324172" lon="1.3799683937289209"><ele>597.0</ele><time>2026-03-30T09:47:55Z</time></trkpt><trkpt lat="41.764270588054984" lon="1.380101205517136"><ele>604.0</ele><time>2026-03-30T09:47:56Z</time></trkpt><trkpt lat="41.76406380268663" lon="1.3802415104935428"><ele>611.0</ele><time>2026-03-30T09:47:57Z</time></trkpt><trkpt lat="41.76383789309292" lon="1.380382492653159"><ele>611.0</ele><time>2026-03-30T09:47:58Z</time></trkpt><trkpt lat="41.76361628522324" lon="1.3805361793843034"><ele>611.0</ele><time>2026-03-30T09:47:59Z</time></trkpt><trkpt lat="41.76339906066538" lon="1.3806838598677442"><ele>611.0</ele><time>2026-03-30T09:48:00Z</time></trkpt><trkpt lat="41.763155730328805" lon="1.3807916300680079"><ele>611.0</ele><time>2026-03-30T09:48:01Z</time></trkpt><trkpt lat="41.76288981173417" lon="1.3808635091106323"><ele>617.5</ele><time>2026-03-30T09:48:02Z</time></trkpt><trkpt lat="41.76261547637339" lon="1.3809174293389388"><ele>624.0</ele><time>2026-03-30T09:48:03Z</time></trkpt><trkpt lat="41.7623473415451" lon="1.380911927515565"><ele>624.0</ele><time>2026-03-30T09:48:04Z</time></trkpt><trkpt lat="41.7620881165572" lon="1.380892694415633"><ele>624.0</ele><time>2026-03-30T09:48:05Z</time></trkpt><trkpt lat="41.761852152769535" lon="1.3808436157649786"><ele>625.6666666666666</ele><time>2026-03-30T09:48:06Z</time></trkpt><trkpt lat="41.76164251384152" lon="1.3807768106549343"><ele>627.3333333333333</ele><time>2026-03-30T09:48:07Z</time></trkpt><trkpt lat="41.76144885912715" lon="1.380725208848207"><ele>629.0</ele><time>2026-03-30T09:48:08Z</time></trkpt><trkpt lat="41.76127715863344" lon="1.3806520882046986"><ele>629.0</ele><time>2026-03-30T09:48:09Z</time></trkpt><trkpt lat="41.761108901962736" lon="1.380577151782619"><ele>629.0</ele><time>2026-03-30T09:48:10Z</time></trkpt><trkpt lat="41.760963637191544" lon="1.3805107064351336"><ele>629.0</ele><time>2026-03-30T09:48:11Z</time></trkpt><trkpt lat="41.76083418590173" lon="1.380458395308062"><ele>630.0</ele><time>2026-03-30T09:48:12Z</time></trkpt><trkpt lat="41.76071597297808" lon="1.3804142607662537"><ele>631.0</ele><time>2026-03-30T09:48:13Z</time></trkpt><trkpt lat="41.76058714508842" lon="1.380379068515759"><ele>632.0</ele><time>2026-03-30T09:48:14Z</time></trkpt><trkpt lat="41.76044658007135" lon="1.380366989187104"><ele>633.0</ele><time>2026-03-30T09:48:15Z</time></trkpt><trkpt lat="41.76028876983085" lon="1.3803400373776804"><ele>632.0</ele><time>2026-03-30T09:48:16Z</time></trkpt><trkpt lat="41.760117718432795" lon="1.3803469759103142"><ele>631.0</ele><time>2026-03-30T09:48:17Z</time></trkpt><trkpt lat="41.75993979730807" lon="1.3803897651100885"><ele>630.0</ele><time>2026-03-30T09:48:18Z</time></trkpt><trkpt lat="41.759747793105156" lon="1.3804393688315006"><ele>629.3333333333334</ele><time>2026-03-30T09:48:19Z</time></trkpt><trkpt lat="41.759546497098064" lon="1.3805185236189292"><ele>628.6666666666667</ele><time>2026-03-30T09:48:20Z</time></trkpt><trkpt lat="41.75934369978809" lon="1.3806216973580316"><ele>628.0</ele><time>2026-03-30T09:48:21Z</time></trkpt><trkpt lat="41.75915179135938" lon="1.3807490465540289"><ele>628.0</ele><time>2026-03-30T09:48:22Z</time></trkpt><trkpt lat="41.75894533867055" lon="1.3808671638393928"><ele>628.0</ele><time>2026-03-30T09:48:23Z</time></trkpt><trkpt lat="41.75872693010364" lon="1.3810337447507206"><ele>627.0</ele><time>2026-03-30T09:48:24Z</time></trkpt><trkpt lat="41.75848932526179" lon="1.3811717736551956"><ele>626.0</ele><time>2026-03-30T09:48:25Z</time></trkpt><trkpt lat="41.75823721758712" lon="1.3812940838365508"><ele>626.0</ele><time>2026-03-30T09:48:26Z</time></trkpt><trkpt lat="41.757982019461345" lon="1.3813552313820388"><ele>626.0</ele><time>2026-03-30T09:48:27Z</time></trkpt><trkpt lat="41.7577308807927" lon="1.3814476563825815"><ele>627.5</ele><time>2026-03-30T09:48:28Z</time></trkpt><trkpt lat="41.75747802615175" lon="1.3814988277162794"><ele>629.0</ele><time>2026-03-30T09:48:29Z</time></trkpt><trkpt lat="41.7572226392398" lon="1.38156949477442"><ele>629.0</ele><time>2026-03-30T09:48:30Z</time></trkpt><trkpt lat="41.75695927028462" lon="1.3816594210801798"><ele>629.0</ele><time>2026-03-30T09:48:31Z</time></trkpt><trkpt lat="41.75669851071311" lon="1.3817309777908617"><ele>630.5</ele><time>2026-03-30T09:48:32Z</time></trkpt><trkpt lat="41.75644379793626" lon="1.3818044132568186"><ele>632.0</ele><time>2026-03-30T09:48:33Z</time></trkpt><trkpt lat="41.756190733757634" lon="1.3818746833487163"><ele>633.0</ele><time>2026-03-30T09:48:34Z</time></trkpt><trkpt lat="41.75593797065208" lon="1.3819460802668238"><ele>634.0</ele><time>2026-03-30T09:48:35Z</time></trkpt><trkpt lat="41.75568566873371" lon="1.3820173389510861"><ele>634.0</ele><time>2026-03-30T09:48:36Z</time></trkpt><trkpt lat="41.755437091962165" lon="1.3820875925318876"><ele>634.0</ele><time>2026-03-30T09:48:37Z</time></trkpt><trkpt lat="41.75518568282781" lon="1.3821587508056168"><ele>633.5</ele><time>2026-03-30T09:48:38Z</time></trkpt><trkpt lat="41.75493167479856" lon="1.3822274722366532"><ele>633.0</ele><time>2026-03-30T09:48:39Z</time></trkpt><trkpt lat="41.75467547462875" lon="1.3822964218744254"><ele>633.0</ele><time>2026-03-30T09:48:40Z</time></trkpt><trkpt lat="41.75444301799782" lon="1.3823673397942748"><ele>633.0</ele><time>2026-03-30T09:48:41Z</time></trkpt><trkpt lat="41.754202298277455" lon="1.382441434455945"><ele>633.0</ele><time>2026-03-30T09:48:42Z</time></trkpt><trkpt lat="41.753963080275284" lon="1.382505938914489"><ele>633.0</ele><time>2026-03-30T09:48:43Z</time></trkpt><trkpt lat="41.753723192456434" lon="1.3825843746169002"><ele>632.0</ele><time>2026-03-30T09:48:44Z</time></trkpt><trkpt lat="41.75348648425674" lon="1.3826645478208495"><ele>631.0</ele><time>2026-03-30T09:48:45Z</time></trkpt><trkpt lat="41.75324915203482" lon="1.382755083772012"><ele>631.0</ele><time>2026-03-30T09:48:46Z</time></trkpt><trkpt lat="41.75301390528277" lon="1.3828527972883171"><ele>631.0</ele><time>2026-03-30T09:48:47Z</time></trkpt><trkpt lat="41.75277173982985" lon="1.3829517417764985"><ele>631.0</ele><time>2026-03-30T09:48:48Z</time></trkpt><trkpt lat="41.75254123013426" lon="1.383053852985565"><ele>631.0</ele><time>2026-03-30T09:48:49Z</time></trkpt><trkpt lat="41.75228853555404" lon="1.3831581064102345"><ele>631.0</ele><time>2026-03-30T09:48:50Z</time></trkpt><trkpt lat="41.752025524718235" lon="1.383268330698484"><ele>631.0</ele><time>2026-03-30T09:48:51Z</time></trkpt><trkpt lat="41.751757722757254" lon="1.383389565539086"><ele>631.0</ele><time>2026-03-30T09:48:52Z</time></trkpt><trkpt lat="41.75149472594277" lon="1.383509213070295"><ele>631.0</ele><time>2026-03-30T09:48:53Z</time></trkpt><trkpt lat="41.75123029120685" lon="1.3836121529275323"><ele>634.5</ele><time>2026-03-30T09:48:54Z</time></trkpt><trkpt lat="41.75099316150413" lon="1.3837275500571997"><ele>638.0</ele><time>2026-03-30T09:48:55Z</time></trkpt><trkpt lat="41.75075066884182" lon="1.3838344379526566"><ele>637.0</ele><time>2026-03-30T09:48:56Z</time></trkpt><trkpt lat="41.750513886972435" lon="1.3839367234075604"><ele>636.0</ele><time>2026-03-30T09:48:57Z</time></trkpt><trkpt lat="41.75028184542301" lon="1.38403728616395"><ele>638.5</ele><time>2026-03-30T09:48:58Z</time></trkpt><trkpt lat="41.750041942279424" lon="1.3841441932624234"><ele>641.0</ele><time>2026-03-30T09:48:59Z</time></trkpt><trkpt lat="41.749795413583115" lon="1.3842489079640898"><ele>641.0</ele><time>2026-03-30T09:49:00Z</time></trkpt><trkpt lat="41.74955050486195" lon="1.3843535556046822"><ele>641.0</ele><time>2026-03-30T09:49:01Z</time></trkpt><trkpt lat="41.7493208809316" lon="1.3844532859195728"><ele>647.0</ele><time>2026-03-30T09:49:02Z</time></trkpt><trkpt lat="41.74909898694543" lon="1.3845462171588805"><ele>653.0</ele><time>2026-03-30T09:49:03Z</time></trkpt><trkpt lat="41.74888262139003" lon="1.3846347454941663"><ele>651.5</ele><time>2026-03-30T09:49:04Z</time></trkpt><trkpt lat="41.748657403161396" lon="1.3847210012160867"><ele>650.0</ele><time>2026-03-30T09:49:05Z</time></trkpt><trkpt lat="41.74843592342932" lon="1.384796120127453"><ele>655.0</ele><time>2026-03-30T09:49:06Z</time></trkpt><trkpt lat="41.74820706909819" lon="1.3848705575663982"><ele>660.0</ele><time>2026-03-30T09:49:07Z</time></trkpt><trkpt lat="41.74798522265997" lon="1.3849382333659728"><ele>660.0</ele><time>2026-03-30T09:49:08Z</time></trkpt><trkpt lat="41.747762362754074" lon="1.3849701123623042"><ele>660.0</ele><time>2026-03-30T09:49:09Z</time></trkpt><trkpt lat="41.747544839734665" lon="1.3850169082747572"><ele>660.0</ele><time>2026-03-30T09:49:10Z</time></trkpt><trkpt lat="41.74733629114655" lon="1.385073335120257"><ele>661.0</ele><time>2026-03-30T09:49:11Z</time></trkpt><trkpt lat="41.7471135705333" lon="1.3851030840108343"><ele>662.0</ele><time>2026-03-30T09:49:12Z</time></trkpt><trkpt lat="41.74688625370919" lon="1.3851217797378546"><ele>664.0</ele><time>2026-03-30T09:49:13Z</time></trkpt><trkpt lat="41.7466532300745" lon="1.3851367418184466"><ele>666.0</ele><time>2026-03-30T09:49:14Z</time></trkpt><trkpt lat="41.746421667072156" lon="1.3851463899119532"><ele>666.0</ele><time>2026-03-30T09:49:15Z</time></trkpt><trkpt lat="41.74618887619227" lon="1.3851486571382512"><ele>666.0</ele><time>2026-03-30T09:49:16Z</time></trkpt><trkpt lat="41.74595879200675" lon="1.3851418663419766"><ele>665.5</ele><time>2026-03-30T09:49:17Z</time></trkpt><trkpt lat="41.745727355181536" lon="1.3851240529506483"><ele>665.0</ele><time>2026-03-30T09:49:18Z</time></trkpt><trkpt lat="41.745494672108435" lon="1.3850991500751197"><ele>665.0</ele><time>2026-03-30T09:49:19Z</time></trkpt><trkpt lat="41.7452767383458" lon="1.385070106381445"><ele>665.0</ele><time>2026-03-30T09:49:20Z</time></trkpt><trkpt lat="41.74506849152276" lon="1.38503688228475"><ele>665.0</ele><time>2026-03-30T09:49:21Z</time></trkpt><trkpt lat="41.74489682471035" lon="1.385009987150289"><ele>665.6666666666666</ele><time>2026-03-30T09:49:22Z</time></trkpt><trkpt lat="41.744718406583694" lon="1.3849817424297088"><ele>666.3333333333334</ele><time>2026-03-30T09:49:23Z</time></trkpt><trkpt lat="41.74454981290556" lon="1.3849581839743301"><ele>667.0</ele><time>2026-03-30T09:49:24Z</time></trkpt><trkpt lat="41.744389602982956" lon="1.3849329880486898"><ele>666.0</ele><time>2026-03-30T09:49:25Z</time></trkpt><trkpt lat="41.744225476068486" lon="1.3849020549230773"><ele>665.0</ele><time>2026-03-30T09:49:26Z</time></trkpt><trkpt lat="41.744057756492595" lon="1.3848660169022962"><ele>664.0</ele><time>2026-03-30T09:49:27Z</time></trkpt><trkpt lat="41.74389103573314" lon="1.3848304302295402"><ele>664.0</ele><time>2026-03-30T09:49:28Z</time></trkpt><trkpt lat="41.74372494226433" lon="1.3847798809309648"><ele>664.0</ele><time>2026-03-30T09:49:29Z</time></trkpt><trkpt lat="41.74355681431607" lon="1.3847116565681774"><ele>664.0</ele><time>2026-03-30T09:49:30Z</time></trkpt><trkpt lat="41.743389919092934" lon="1.3846238285555057"><ele>663.3333333333334</ele><time>2026-03-30T09:49:31Z</time></trkpt><trkpt lat="41.74323484623925" lon="1.3845214482899542"><ele>662.6666666666666</ele><time>2026-03-30T09:49:32Z</time></trkpt><trkpt lat="41.74309520562013" lon="1.3844197407363725"><ele>662.0</ele><time>2026-03-30T09:49:33Z</time></trkpt><trkpt lat="41.74297284605485" lon="1.3843214693894035"><ele>662.0</ele><time>2026-03-30T09:49:34Z</time></trkpt><trkpt lat="41.74285324036249" lon="1.3842127723584408"><ele>662.0</ele><time>2026-03-30T09:49:35Z</time></trkpt><trkpt lat="41.74275463077435" lon="1.384111813444852"><ele>662.0</ele><time>2026-03-30T09:49:36Z</time></trkpt><trkpt lat="41.742670499091375" lon="1.3840234998976901"><ele>662.0</ele><time>2026-03-30T09:49:37Z</time></trkpt><trkpt lat="41.74259298744572" lon="1.3839492659119192"><ele>661.0</ele><time>2026-03-30T09:49:38Z</time></trkpt><trkpt lat="41.7425142874966" lon="1.3838725324750276"><ele>660.0</ele><time>2026-03-30T09:49:39Z</time></trkpt><trkpt lat="41.74242270612129" lon="1.383771962424375"><ele>659.0</ele><time>2026-03-30T09:49:40Z</time></trkpt><trkpt lat="41.742344589609914" lon="1.3836963695104587"><ele>658.0</ele><time>2026-03-30T09:49:41Z</time></trkpt><trkpt lat="41.74226780133651" lon="1.3836342510926354"><ele>657.0</ele><time>2026-03-30T09:49:42Z</time></trkpt><trkpt lat="41.74217724851295" lon="1.3835879681994898"><ele>657.0</ele><time>2026-03-30T09:49:43Z</time></trkpt><trkpt lat="41.74207598829695" lon="1.383567623712079"><ele>657.0</ele><time>2026-03-30T09:49:44Z</time></trkpt><trkpt lat="41.741969215735764" lon="1.3835718023929604"><ele>657.0</ele><time>2026-03-30T09:49:45Z</time></trkpt><trkpt lat="41.74185608484375" lon="1.3835829162360394"><ele>657.0</ele><time>2026-03-30T09:49:46Z</time></trkpt><trkpt lat="41.7417342541947" lon="1.3836072612429964"><ele>657.0</ele><time>2026-03-30T09:49:47Z</time></trkpt><trkpt lat="41.74161227230481" lon="1.3836382410186396"><ele>656.5</ele><time>2026-03-30T09:49:48Z</time></trkpt><trkpt lat="41.74149205853" lon="1.3836790938653745"><ele>656.0</ele><time>2026-03-30T09:49:49Z</time></trkpt><trkpt lat="41.74136794425318" lon="1.3837135208601552"><ele>655.5</ele><time>2026-03-30T09:49:50Z</time></trkpt><trkpt lat="41.741252683841566" lon="1.3837489720784113"><ele>655.0</ele><time>2026-03-30T09:49:51Z</time></trkpt><trkpt lat="41.74113680431226" lon="1.3837863565781579"><ele>653.75</ele><time>2026-03-30T09:49:52Z</time></trkpt><trkpt lat="41.7410218265639" lon="1.3838209804714094"><ele>652.5</ele><time>2026-03-30T09:49:53Z</time></trkpt><trkpt lat="41.740891110604274" lon="1.3838449817772718"><ele>651.25</ele><time>2026-03-30T09:49:54Z</time></trkpt><trkpt lat="41.74072815816714" lon="1.383853904757556"><ele>650.0</ele><time>2026-03-30T09:49:55Z</time></trkpt><trkpt lat="41.74052162048753" lon="1.3838493482220058"><ele>650.0</ele><time>2026-03-30T09:49:56Z</time></trkpt><trkpt lat="41.740301654046036" lon="1.3838354937379773"><ele>650.0</ele><time>2026-03-30T09:49:57Z</time></trkpt><trkpt lat="41.74010597992155" lon="1.383833269049586"><ele>650.0</ele><time>2026-03-30T09:49:58Z</time></trkpt><trkpt lat="41.739877307873265" lon="1.3838594427380428"><ele>642.5</ele><time>2026-03-30T09:49:59Z</time></trkpt><trkpt lat="41.739641106403674" lon="1.3839254847012412"><ele>635.0</ele><time>2026-03-30T09:50:00Z</time></trkpt><trkpt lat="41.73943169915864" lon="1.3840067960493425"><ele>635.3333333333333</ele><time>2026-03-30T09:50:01Z</time></trkpt><trkpt lat="41.7392223668778" lon="1.384093613042831"><ele>635.6666666666666</ele><time>2026-03-30T09:50:02Z</time></trkpt><trkpt lat="41.73900324264404" lon="1.3841629787474667"><ele>636.0</ele><time>2026-03-30T09:50:03Z</time></trkpt><trkpt lat="41.7387736241162" lon="1.3841705900561612"><ele>637.0</ele><time>2026-03-30T09:50:04Z</time></trkpt><trkpt lat="41.738538324732936" lon="1.3841080721308476"><ele>638.0</ele><time>2026-03-30T09:50:05Z</time></trkpt><trkpt lat="41.73830366335724" lon="1.3839920578872005"><ele>638.0</ele><time>2026-03-30T09:50:06Z</time></trkpt><trkpt lat="41.738079119076865" lon="1.383863157581245"><ele>638.0</ele><time>2026-03-30T09:50:07Z</time></trkpt><trkpt lat="41.73783750577319" lon="1.3837588759039117"><ele>637.5</ele><time>2026-03-30T09:50:08Z</time></trkpt><trkpt lat="41.73758785692512" lon="1.383661685919999"><ele>637.0</ele><time>2026-03-30T09:50:09Z</time></trkpt><trkpt lat="41.737356575887176" lon="1.3835151051413086"><ele>637.0</ele><time>2026-03-30T09:50:10Z</time></trkpt><trkpt lat="41.73715540358506" lon="1.3833148100496473"><ele>637.0</ele><time>2026-03-30T09:50:11Z</time></trkpt><trkpt lat="41.736969233650974" lon="1.3831344975099473"><ele>639.6666666666667</ele><time>2026-03-30T09:50:12Z</time></trkpt><trkpt lat="41.73677572042009" lon="1.3830329206108225"><ele>642.3333333333334</ele><time>2026-03-30T09:50:13Z</time></trkpt><trkpt lat="41.736579258451364" lon="1.3829971091358568"><ele>645.0</ele><time>2026-03-30T09:50:14Z</time></trkpt><trkpt lat="41.736324546619784" lon="1.383031201968879"><ele>646.5</ele><time>2026-03-30T09:50:15Z</time></trkpt><trkpt lat="41.73606733668045" lon="1.3830674995665109"><ele>648.0</ele><time>2026-03-30T09:50:16Z</time></trkpt><trkpt lat="41.73579545577311" lon="1.3830851295537634"><ele>648.5</ele><time>2026-03-30T09:50:17Z</time></trkpt><trkpt lat="41.735517213508274" lon="1.3831035652295003"><ele>649.0</ele><time>2026-03-30T09:50:18Z</time></trkpt><trkpt lat="41.73524789265986" lon="1.383121798446996"><ele>647.5</ele><time>2026-03-30T09:50:19Z</time></trkpt><trkpt lat="41.73498472275236" lon="1.3831323657233616"><ele>646.0</ele><time>2026-03-30T09:50:20Z</time></trkpt><trkpt lat="41.73472204664336" lon="1.383138397008166"><ele>646.0</ele><time>2026-03-30T09:50:21Z</time></trkpt><trkpt lat="41.73446175455681" lon="1.383129937225338"><ele>646.0</ele><time>2026-03-30T09:50:22Z</time></trkpt><trkpt lat="41.73421293901986" lon="1.3831680964259836"><ele>648.5</ele><time>2026-03-30T09:50:23Z</time></trkpt><trkpt lat="41.7339834418847" lon="1.3832021448802816"><ele>651.0</ele><time>2026-03-30T09:50:24Z</time></trkpt><trkpt lat="41.73376617116761" lon="1.3832896478048586"><ele>651.0</ele><time>2026-03-30T09:50:25Z</time></trkpt><trkpt lat="41.733563620548324" lon="1.3834522048011058"><ele>651.0</ele><time>2026-03-30T09:50:26Z</time></trkpt><trkpt lat="41.73338669260723" lon="1.383676136628589"><ele>654.5</ele><time>2026-03-30T09:50:27Z</time></trkpt><trkpt lat="41.73326410662106" lon="1.3839605674530027"><ele>658.0</ele><time>2026-03-30T09:50:28Z</time></trkpt><trkpt lat="41.73317298763422" lon="1.384263018596665"><ele>658.0</ele><time>2026-03-30T09:50:29Z</time></trkpt><trkpt lat="41.73309188692148" lon="1.3845819802502894"><ele>658.0</ele><time>2026-03-30T09:50:30Z</time></trkpt><trkpt lat="41.733044500792765" lon="1.3849250343663468"><ele>658.0</ele><time>2026-03-30T09:50:31Z</time></trkpt><trkpt lat="41.732986599460055" lon="1.3852649652672364"><ele>658.0</ele><time>2026-03-30T09:50:32Z</time></trkpt><trkpt lat="41.732915133344676" lon="1.3855873048567826"><ele>661.0</ele><time>2026-03-30T09:50:33Z</time></trkpt><trkpt lat="41.73285349949392" lon="1.3858926501165305"><ele>664.0</ele><time>2026-03-30T09:50:34Z</time></trkpt><trkpt lat="41.73279743963977" lon="1.386192772934238"><ele>667.5</ele><time>2026-03-30T09:50:35Z</time></trkpt><trkpt lat="41.732701038024686" lon="1.386468921665831"><ele>671.0</ele><time>2026-03-30T09:50:36Z</time></trkpt><trkpt lat="41.732575169955716" lon="1.3867173366749845"><ele>671.0</ele><time>2026-03-30T09:50:37Z</time></trkpt><trkpt lat="41.73241012574558" lon="1.3869210323122096"><ele>671.0</ele><time>2026-03-30T09:50:38Z</time></trkpt><trkpt lat="41.732223800652164" lon="1.3870925504143157"><ele>674.0</ele><time>2026-03-30T09:50:39Z</time></trkpt><trkpt lat="41.73203128856586" lon="1.3872621037890869"><ele>677.0</ele><time>2026-03-30T09:50:40Z</time></trkpt><trkpt lat="41.73184698945998" lon="1.3874462868499082"><ele>679.5</ele><time>2026-03-30T09:50:41Z</time></trkpt><trkpt lat="41.731639177201686" lon="1.3875973725345847"><ele>682.0</ele><time>2026-03-30T09:50:42Z</time></trkpt><trkpt lat="41.731408632823594" lon="1.3877360717722478"><ele>682.0</ele><time>2026-03-30T09:50:43Z</time></trkpt><trkpt lat="41.731180402762625" lon="1.3878788565431694"><ele>682.0</ele><time>2026-03-30T09:50:44Z</time></trkpt><trkpt lat="41.730945264998766" lon="1.3880035333091831"><ele>682.5</ele><time>2026-03-30T09:50:45Z</time></trkpt><trkpt lat="41.730715802714165" lon="1.3880997131374821"><ele>683.0</ele><time>2026-03-30T09:50:46Z</time></trkpt><trkpt lat="41.73049828919285" lon="1.3881824051458442"><ele>683.0</ele><time>2026-03-30T09:50:47Z</time></trkpt><trkpt lat="41.730306778873214" lon="1.3882542943178753"><ele>683.0</ele><time>2026-03-30T09:50:48Z</time></trkpt><trkpt lat="41.730133271955246" lon="1.3883160826337988"><ele>683.0</ele><time>2026-03-30T09:50:49Z</time></trkpt><trkpt lat="41.7299877411744" lon="1.3883679082606308"><ele>684.4</ele><time>2026-03-30T09:50:50Z</time></trkpt><trkpt lat="41.72986803053776" lon="1.3884275558674533"><ele>685.8</ele><time>2026-03-30T09:50:51Z</time></trkpt><trkpt lat="41.72977554843768" lon="1.3884455059354555"><ele>687.2</ele><time>2026-03-30T09:50:52Z</time></trkpt><trkpt lat="41.729684228205365" lon="1.388426312948761"><ele>688.6</ele><time>2026-03-30T09:50:53Z</time></trkpt><trkpt lat="41.72962261821048" lon="1.388456493495371"><ele>690.0</ele><time>2026-03-30T09:50:54Z</time></trkpt><trkpt lat="41.72954942669063" lon="1.3882790231860975"><ele>690.0</ele><time>2026-03-30T09:50:55Z</time></trkpt><trkpt lat="41.729504228409176" lon="1.3881836260981764"><ele>690.0</ele><time>2026-03-30T09:50:56Z</time></trkpt><trkpt lat="41.72947327672886" lon="1.3880575934660992"><ele>690.0</ele><time>2026-03-30T09:50:57Z</time></trkpt><trkpt lat="41.729472713782435" lon="1.387883167340747"><ele>690.0</ele><time>2026-03-30T09:50:58Z</time></trkpt><trkpt lat="41.72945726544914" lon="1.3876310869713848"><ele>689.3333333333334</ele><time>2026-03-30T09:50:59Z</time></trkpt><trkpt lat="41.729432862622744" lon="1.3873660284742477"><ele>688.6666666666667</ele><time>2026-03-30T09:51:00Z</time></trkpt><trkpt lat="41.7294344888609" lon="1.387149815570733"><ele>688.0</ele><time>2026-03-30T09:51:01Z</time></trkpt><trkpt lat="41.72940047364966" lon="1.3869236140776513"><ele>688.3333333333334</ele><time>2026-03-30T09:51:02Z</time></trkpt><trkpt lat="41.72937107087484" lon="1.3866853467281088"><ele>688.6666666666666</ele><time>2026-03-30T09:51:03Z</time></trkpt><trkpt lat="41.72932034405914" lon="1.3864350785489283"><ele>689.0</ele><time>2026-03-30T09:51:04Z</time></trkpt><trkpt lat="41.72926104301937" lon="1.3861843069746067"><ele>689.0</ele><time>2026-03-30T09:51:05Z</time></trkpt><trkpt lat="41.72920730373833" lon="1.3859358609530725"><ele>689.0</ele><time>2026-03-30T09:51:06Z</time></trkpt><trkpt lat="41.72915560596895" lon="1.385689064279999"><ele>689.0</ele><time>2026-03-30T09:51:07Z</time></trkpt><trkpt lat="41.72910482992907" lon="1.3854450111261458"><ele>689.3333333333333</ele><time>2026-03-30T09:51:08Z</time></trkpt><trkpt lat="41.729053763149125" lon="1.3852023537259708"><ele>689.6666666666666</ele><time>2026-03-30T09:51:09Z</time></trkpt><trkpt lat="41.72900520749984" lon="1.3849640898498592"><ele>690.0</ele><time>2026-03-30T09:51:10Z</time></trkpt><trkpt lat="41.72895971955665" lon="1.3847207480299133"><ele>689.6666666666666</ele><time>2026-03-30T09:51:11Z</time></trkpt><trkpt lat="41.728914468412725" lon="1.384472789934738"><ele>689.3333333333333</ele><time>2026-03-30T09:51:12Z</time></trkpt><trkpt lat="41.72886244779057" lon="1.38420867338791"><ele>689.0</ele><time>2026-03-30T09:51:13Z</time></trkpt><trkpt lat="41.72880779475555" lon="1.3839399827428303"><ele>687.6666666666666</ele><time>2026-03-30T09:51:14Z</time></trkpt><trkpt lat="41.72875866005061" lon="1.3836688931090797"><ele>686.3333333333334</ele><time>2026-03-30T09:51:15Z</time></trkpt><trkpt lat="41.72871276631362" lon="1.3833913960657138"><ele>685.0</ele><time>2026-03-30T09:51:16Z</time></trkpt><trkpt lat="41.728663695662235" lon="1.3831119790885964"><ele>684.6666666666667</ele><time>2026-03-30T09:51:17Z</time></trkpt><trkpt lat="41.72861216758846" lon="1.3828306094530367"><ele>684.3333333333334</ele><time>2026-03-30T09:51:18Z</time></trkpt><trkpt lat="41.728556046113475" lon="1.3825488243699458"><ele>684.0</ele><time>2026-03-30T09:51:19Z</time></trkpt><trkpt lat="41.728494471348576" lon="1.3822610351243847"><ele>684.0</ele><time>2026-03-30T09:51:20Z</time></trkpt><trkpt lat="41.728431706269774" lon="1.3819693322056625"><ele>684.0</ele><time>2026-03-30T09:51:21Z</time></trkpt><trkpt lat="41.728370925007646" lon="1.3816682469956614"><ele>684.0</ele><time>2026-03-30T09:51:22Z</time></trkpt><trkpt lat="41.728312463656444" lon="1.3813737248590774"><ele>684.0</ele><time>2026-03-30T09:51:23Z</time></trkpt><trkpt lat="41.72825330664922" lon="1.3810773587110332"><ele>684.5</ele><time>2026-03-30T09:51:24Z</time></trkpt><trkpt lat="41.72819321992483" lon="1.3807766541454825"><ele>685.0</ele><time>2026-03-30T09:51:25Z</time></trkpt><trkpt lat="41.728128214175776" lon="1.3804718078082097"><ele>684.0</ele><time>2026-03-30T09:51:26Z</time></trkpt><trkpt lat="41.72806272344653" lon="1.380172987570576"><ele>683.0</ele><time>2026-03-30T09:51:27Z</time></trkpt><trkpt lat="41.72799308705286" lon="1.3798735758918628"><ele>681.5</ele><time>2026-03-30T09:51:28Z</time></trkpt><trkpt lat="41.72792406498174" lon="1.379575961396838"><ele>680.0</ele><time>2026-03-30T09:51:29Z</time></trkpt><trkpt lat="41.72785886379851" lon="1.3792751978020579"><ele>680.0</ele><time>2026-03-30T09:51:30Z</time></trkpt><trkpt lat="41.727799339461654" lon="1.3789731758744295"><ele>680.0</ele><time>2026-03-30T09:51:31Z</time></trkpt><trkpt lat="41.727739130575344" lon="1.3786694682393523"><ele>679.0</ele><time>2026-03-30T09:51:32Z</time></trkpt><trkpt lat="41.72767844409891" lon="1.3783729492126982"><ele>678.0</ele><time>2026-03-30T09:51:33Z</time></trkpt><trkpt lat="41.72761653948628" lon="1.3780779886533414"><ele>677.6666666666666</ele><time>2026-03-30T09:51:34Z</time></trkpt><trkpt lat="41.72755531235129" lon="1.3777798014370781"><ele>677.3333333333333</ele><time>2026-03-30T09:51:35Z</time></trkpt><trkpt lat="41.727498037790916" lon="1.377498510089728"><ele>677.0</ele><time>2026-03-30T09:51:36Z</time></trkpt><trkpt lat="41.727439045306554" lon="1.3772058741829336"><ele>676.6666666666666</ele><time>2026-03-30T09:51:37Z</time></trkpt><trkpt lat="41.727379726194414" lon="1.3769164319789833"><ele>676.3333333333334</ele><time>2026-03-30T09:51:38Z</time></trkpt><trkpt lat="41.72732053982085" lon="1.3766297463874233"><ele>676.0</ele><time>2026-03-30T09:51:39Z</time></trkpt><trkpt lat="41.727264248016944" lon="1.3763513763366702"><ele>675.3333333333334</ele><time>2026-03-30T09:51:40Z</time></trkpt><trkpt lat="41.727205085822185" lon="1.3760732607595276"><ele>674.6666666666666</ele><time>2026-03-30T09:51:41Z</time></trkpt><trkpt lat="41.72714823606995" lon="1.375806556797324"><ele>674.0</ele><time>2026-03-30T09:51:42Z</time></trkpt><trkpt lat="41.727095099922046" lon="1.375536855925309"><ele>673.6666666666666</ele><time>2026-03-30T09:51:43Z</time></trkpt><trkpt lat="41.72704187492167" lon="1.375268047900438"><ele>673.3333333333334</ele><time>2026-03-30T09:51:44Z</time></trkpt><trkpt lat="41.72698705753878" lon="1.3750031288065934"><ele>673.0</ele><time>2026-03-30T09:51:45Z</time></trkpt><trkpt lat="41.726930886684585" lon="1.37474024522786"><ele>672.6666666666667</ele><time>2026-03-30T09:51:46Z</time></trkpt><trkpt lat="41.726877251103744" lon="1.3744856356507298"><ele>672.3333333333334</ele><time>2026-03-30T09:51:47Z</time></trkpt><trkpt lat="41.72682786218627" lon="1.374240276727665"><ele>672.0</ele><time>2026-03-30T09:51:48Z</time></trkpt><trkpt lat="41.72677991705681" lon="1.3740035059822513"><ele>671.25</ele><time>2026-03-30T09:51:49Z</time></trkpt><trkpt lat="41.726735221943294" lon="1.3737898276717824"><ele>670.5</ele><time>2026-03-30T09:51:50Z</time></trkpt><trkpt lat="41.726701085698366" lon="1.3736135317600207"><ele>669.75</ele><time>2026-03-30T09:51:51Z</time></trkpt><trkpt lat="41.72667906253579" lon="1.3734661312418899"><ele>669.0</ele><time>2026-03-30T09:51:52Z</time></trkpt><trkpt lat="41.726666473909006" lon="1.373333540869877"><ele>669.0</ele><time>2026-03-30T09:51:53Z</time></trkpt><trkpt lat="41.72665650827566" lon="1.3732033596448585"><ele>669.0</ele><time>2026-03-30T09:51:54Z</time></trkpt><trkpt lat="41.72665313521904" lon="1.3730874012285212"><ele>669.0</ele><time>2026-03-30T09:51:55Z</time></trkpt><trkpt lat="41.726636188944575" lon="1.3729829732439858"><ele>669.0</ele><time>2026-03-30T09:51:56Z</time></trkpt><trkpt lat="41.72662886754165" lon="1.3728859787494752"><ele>669.0</ele><time>2026-03-30T09:51:57Z</time></trkpt><trkpt lat="41.726628214904075" lon="1.3727822977849116"><ele>669.0</ele><time>2026-03-30T09:51:58Z</time></trkpt><trkpt lat="41.72658317990136" lon="1.372639656805977"><ele>668.8000000000001</ele><time>2026-03-30T09:51:59Z</time></trkpt><trkpt lat="41.72656928078521" lon="1.3725209714441005"><ele>668.6</ele><time>2026-03-30T09:52:00Z</time></trkpt><trkpt lat="41.726554129519634" lon="1.372377776670868"><ele>668.4</ele><time>2026-03-30T09:52:01Z</time></trkpt><trkpt lat="41.72653098258601" lon="1.372227256015496"><ele>668.2</ele><time>2026-03-30T09:52:02Z</time></trkpt><trkpt lat="41.726507946909905" lon="1.3720668451201863"><ele>668.0</ele><time>2026-03-30T09:52:03Z</time></trkpt><trkpt lat="41.72648058008309" lon="1.3718983897600283"><ele>668.0</ele><time>2026-03-30T09:52:04Z</time></trkpt><trkpt lat="41.72645789952783" lon="1.371719199863045"><ele>668.0</ele><time>2026-03-30T09:52:05Z</time></trkpt><trkpt lat="41.72644445540735" lon="1.3715299229702484"><ele>668.0</ele><time>2026-03-30T09:52:06Z</time></trkpt><trkpt lat="41.72642313881963" lon="1.3713471101431949"><ele>668.0</ele><time>2026-03-30T09:52:07Z</time></trkpt><trkpt lat="41.72640722644154" lon="1.3711822381797112"><ele>667.25</ele><time>2026-03-30T09:52:08Z</time></trkpt><trkpt lat="41.7263946754789" lon="1.3710174517724714"><ele>666.5</ele><time>2026-03-30T09:52:09Z</time></trkpt><trkpt lat="41.726387481409446" lon="1.3708596751469337"><ele>665.75</ele><time>2026-03-30T09:52:10Z</time></trkpt><trkpt lat="41.726379226511575" lon="1.370715300570817"><ele>665.0</ele><time>2026-03-30T09:52:11Z</time></trkpt><trkpt lat="41.72637405905616" lon="1.3705755304807827"><ele>664.5</ele><time>2026-03-30T09:52:12Z</time></trkpt><trkpt lat="41.72636299941871" lon="1.3704265129567372"><ele>664.0</ele><time>2026-03-30T09:52:13Z</time></trkpt><trkpt lat="41.726350610296095" lon="1.3702675575069987"><ele>663.5</ele><time>2026-03-30T09:52:14Z</time></trkpt><trkpt lat="41.72633920842915" lon="1.3700976203876685"><ele>663.0</ele><time>2026-03-30T09:52:15Z</time></trkpt><trkpt lat="41.72632952022252" lon="1.3699195963660113"><ele>663.0</ele><time>2026-03-30T09:52:16Z</time></trkpt><trkpt lat="41.72632237363101" lon="1.369743658682887"><ele>663.0</ele><time>2026-03-30T09:52:17Z</time></trkpt><trkpt lat="41.72631382900636" lon="1.3695737587017625"><ele>663.0</ele><time>2026-03-30T09:52:18Z</time></trkpt><trkpt lat="41.72629689141858" lon="1.369406995619942"><ele>663.0</ele><time>2026-03-30T09:52:19Z</time></trkpt><trkpt lat="41.72628844220909" lon="1.3692376879879706"><ele>662.8</ele><time>2026-03-30T09:52:20Z</time></trkpt><trkpt lat="41.72627955519098" lon="1.3690841634165816"><ele>662.5999999999999</ele><time>2026-03-30T09:52:21Z</time></trkpt><trkpt lat="41.726275564954015" lon="1.3689416115886928"><ele>662.4000000000001</ele><time>2026-03-30T09:52:22Z</time></trkpt><trkpt lat="41.726271932272915" lon="1.3688035220034571"><ele>662.2</ele><time>2026-03-30T09:52:23Z</time></trkpt><trkpt lat="41.72626154371296" lon="1.3686690608157899"><ele>662.0</ele><time>2026-03-30T09:52:24Z</time></trkpt><trkpt lat="41.72624852297391" lon="1.3685569591751534"><ele>661.8333333333333</ele><time>2026-03-30T09:52:25Z</time></trkpt><trkpt lat="41.726240652128695" lon="1.3684556284174936"><ele>661.6666666666666</ele><time>2026-03-30T09:52:26Z</time></trkpt><trkpt lat="41.726239486504475" lon="1.3683619486921124"><ele>661.5</ele><time>2026-03-30T09:52:27Z</time></trkpt><trkpt lat="41.72623208518309" lon="1.3682693147047245"><ele>661.3333333333334</ele><time>2026-03-30T09:52:28Z</time></trkpt><trkpt lat="41.72622212110486" lon="1.368172010528997"><ele>661.1666666666667</ele><time>2026-03-30T09:52:29Z</time></trkpt><trkpt lat="41.72620946485408" lon="1.3680440413780157"><ele>661.0</ele><time>2026-03-30T09:52:30Z</time></trkpt><trkpt lat="41.726191931754435" lon="1.3679021378926597"><ele>661.0</ele><time>2026-03-30T09:52:31Z</time></trkpt><trkpt lat="41.726174466820574" lon="1.3677482371160954"><ele>661.0</ele><time>2026-03-30T09:52:32Z</time></trkpt><trkpt lat="41.72615899504113" lon="1.3675890604835677"><ele>661.0</ele><time>2026-03-30T09:52:33Z</time></trkpt><trkpt lat="41.72614743270544" lon="1.3674372751150765"><ele>661.0</ele><time>2026-03-30T09:52:34Z</time></trkpt><trkpt lat="41.726135911436025" lon="1.3672890370433521"><ele>660.4</ele><time>2026-03-30T09:52:35Z</time></trkpt><trkpt lat="41.726123538295504" lon="1.3671566796881767"><ele>659.8</ele><time>2026-03-30T09:52:36Z</time></trkpt><trkpt lat="41.72611003323077" lon="1.3670347674382108"><ele>659.1999999999999</ele><time>2026-03-30T09:52:37Z</time></trkpt><trkpt lat="41.72609707943659" lon="1.3669179250962307"><ele>658.5999999999999</ele><time>2026-03-30T09:52:38Z</time></trkpt><trkpt lat="41.72608222809497" lon="1.3667863884010352"><ele>658.0</ele><time>2026-03-30T09:52:39Z</time></trkpt><trkpt lat="41.72606957125908" lon="1.366652937674886"><ele>657.8</ele><time>2026-03-30T09:52:40Z</time></trkpt><trkpt lat="41.72605829263594" lon="1.3665265619999394"><ele>657.5999999999999</ele><time>2026-03-30T09:52:41Z</time></trkpt><trkpt lat="41.72605345344157" lon="1.366409328844555"><ele>657.4000000000001</ele><time>2026-03-30T09:52:42Z</time></trkpt><trkpt lat="41.72605297186707" lon="1.3662823518916098"><ele>657.2</ele><time>2026-03-30T09:52:43Z</time></trkpt><trkpt lat="41.726052517210505" lon="1.3661408106794406"><ele>657.0</ele><time>2026-03-30T09:52:44Z</time></trkpt><trkpt lat="41.72605464437498" lon="1.366001899597714"><ele>657.0</ele><time>2026-03-30T09:52:45Z</time></trkpt><trkpt lat="41.72606039211072" lon="1.3658507687599024"><ele>657.0</ele><time>2026-03-30T09:52:46Z</time></trkpt><trkpt lat="41.726058335858326" lon="1.3657084752596471"><ele>657.0</ele><time>2026-03-30T09:52:47Z</time></trkpt><trkpt lat="41.72605801227692" lon="1.365557720815953"><ele>657.0</ele><time>2026-03-30T09:52:48Z</time></trkpt><trkpt lat="41.72605992813633" lon="1.3654070796069129"><ele>657.0</ele><time>2026-03-30T09:52:49Z</time></trkpt><trkpt lat="41.72606073832722" lon="1.3652543007933602"><ele>656.6</ele><time>2026-03-30T09:52:50Z</time></trkpt><trkpt lat="41.72605951155488" lon="1.3651157023844829"><ele>656.2</ele><time>2026-03-30T09:52:51Z</time></trkpt><trkpt lat="41.72606187988827" lon="1.364986660550203"><ele>655.8</ele><time>2026-03-30T09:52:52Z</time></trkpt><trkpt lat="41.72605823393453" lon="1.364853360840061"><ele>655.4</ele><time>2026-03-30T09:52:53Z</time></trkpt><trkpt lat="41.726057466735554" lon="1.3647030812407541"><ele>655.0</ele><time>2026-03-30T09:52:54Z</time></trkpt><trkpt lat="41.72605112892692" lon="1.364550899908241"><ele>654.5</ele><time>2026-03-30T09:52:55Z</time></trkpt><trkpt lat="41.72604354906732" lon="1.3644020873719138"><ele>654.0</ele><time>2026-03-30T09:52:56Z</time></trkpt><trkpt lat="41.72606793226738" lon="1.3642422930783002"><ele>653.5</ele><time>2026-03-30T09:52:57Z</time></trkpt><trkpt lat="41.726056422910936" lon="1.364063147312543"><ele>653.0</ele><time>2026-03-30T09:52:58Z</time></trkpt><trkpt lat="41.72604183693579" lon="1.3638999495927535"><ele>652.5</ele><time>2026-03-30T09:52:59Z</time></trkpt><trkpt lat="41.726018998847046" lon="1.3637280901308122"><ele>652.0</ele><time>2026-03-30T09:53:00Z</time></trkpt><trkpt lat="41.72599540101513" lon="1.36356942181909"><ele>651.5</ele><time>2026-03-30T09:53:01Z</time></trkpt><trkpt lat="41.72597143396258" lon="1.3634148344222667"><ele>651.0</ele><time>2026-03-30T09:53:02Z</time></trkpt><trkpt lat="41.72595148341812" lon="1.36327717896281"><ele>651.0</ele><time>2026-03-30T09:53:03Z</time></trkpt><trkpt lat="41.725931800030175" lon="1.363141189917669"><ele>651.0</ele><time>2026-03-30T09:53:04Z</time></trkpt><trkpt lat="41.7259099543647" lon="1.3629956376912724"><ele>651.0</ele><time>2026-03-30T09:53:05Z</time></trkpt><trkpt lat="41.72588471893957" lon="1.3628462656660074"><ele>651.0</ele><time>2026-03-30T09:53:06Z</time></trkpt><trkpt lat="41.72586270960814" lon="1.3627183708357906"><ele>651.0</ele><time>2026-03-30T09:53:07Z</time></trkpt><trkpt lat="41.725837205064785" lon="1.36258177076376"><ele>650.8</ele><time>2026-03-30T09:53:08Z</time></trkpt><trkpt lat="41.72581093926297" lon="1.3624432188358733"><ele>650.5999999999999</ele><time>2026-03-30T09:53:09Z</time></trkpt><trkpt lat="41.725786495924034" lon="1.3623142801659633"><ele>650.4</ele><time>2026-03-30T09:53:10Z</time></trkpt><trkpt lat="41.72575708919974" lon="1.3621618909748168"><ele>650.2</ele><time>2026-03-30T09:53:11Z</time></trkpt><trkpt lat="41.72572688709586" lon="1.3620056820145612"><ele>650.0</ele><time>2026-03-30T09:53:12Z</time></trkpt><trkpt lat="41.72569796512415" lon="1.3618634211411156"><ele>649.4</ele><time>2026-03-30T09:53:13Z</time></trkpt><trkpt lat="41.72566959249895" lon="1.361724224776191"><ele>648.8</ele><time>2026-03-30T09:53:14Z</time></trkpt><trkpt lat="41.725641450282176" lon="1.3615861588257918"><ele>648.2</ele><time>2026-03-30T09:53:15Z</time></trkpt><trkpt lat="41.725613233622596" lon="1.3614477274623253"><ele>647.6</ele><time>2026-03-30T09:53:16Z</time></trkpt><trkpt lat="41.72558549804461" lon="1.3613092526616284"><ele>647.0</ele><time>2026-03-30T09:53:17Z</time></trkpt><trkpt lat="41.72555776266447" lon="1.3611701361498565"><ele>646.8</ele><time>2026-03-30T09:53:18Z</time></trkpt><trkpt lat="41.725530950563915" lon="1.361032766151827"><ele>646.6</ele><time>2026-03-30T09:53:19Z</time></trkpt><trkpt lat="41.725505295444975" lon="1.360898547200078"><ele>646.4</ele><time>2026-03-30T09:53:20Z</time></trkpt><trkpt lat="41.725478195474615" lon="1.3607567709187662"><ele>646.1999999999999</ele><time>2026-03-30T09:53:21Z</time></trkpt><trkpt lat="41.72544804799484" lon="1.3606000087250856"><ele>646.0</ele><time>2026-03-30T09:53:22Z</time></trkpt><trkpt lat="41.725419202302774" lon="1.3604452829916889"><ele>645.25</ele><time>2026-03-30T09:53:23Z</time></trkpt><trkpt lat="41.72539081950811" lon="1.3602858030470768"><ele>644.5</ele><time>2026-03-30T09:53:24Z</time></trkpt><trkpt lat="41.72533448153217" lon="1.360134338298245"><ele>643.75</ele><time>2026-03-30T09:53:25Z</time></trkpt><trkpt lat="41.72528876948846" lon="1.359995176841122"><ele>643.0</ele><time>2026-03-30T09:53:26Z</time></trkpt><trkpt lat="41.72522879257184" lon="1.3598688413526783"><ele>643.0</ele><time>2026-03-30T09:53:27Z</time></trkpt><trkpt lat="41.72515984086846" lon="1.3597482875631197"><ele>643.0</ele><time>2026-03-30T09:53:28Z</time></trkpt><trkpt lat="41.72510166657652" lon="1.3596123929096766"><ele>643.0</ele><time>2026-03-30T09:53:29Z</time></trkpt><trkpt lat="41.72503344798399" lon="1.359489857994443"><ele>643.0</ele><time>2026-03-30T09:53:30Z</time></trkpt><trkpt lat="41.724968660004286" lon="1.3593690971229684"><ele>643.0</ele><time>2026-03-30T09:53:31Z</time></trkpt><trkpt lat="41.72492040831075" lon="1.3592558519086793"><ele>643.0</ele><time>2026-03-30T09:53:32Z</time></trkpt><trkpt lat="41.72488660349713" lon="1.3591583337368862"><ele>643.0</ele><time>2026-03-30T09:53:33Z</time></trkpt><trkpt lat="41.724864825278836" lon="1.3590784800042757"><ele>643.0</ele><time>2026-03-30T09:53:34Z</time></trkpt><trkpt lat="41.72486958785483" lon="1.3589895071217806"><ele>643.0</ele><time>2026-03-30T09:53:36Z</time></trkpt><trkpt lat="41.724980566936175" lon="1.358904709585469"><ele>643.0</ele><time>2026-03-30T09:53:37Z</time></trkpt><trkpt lat="41.72505692245183" lon="1.3588148537343645"><ele>643.0</ele><time>2026-03-30T09:53:39Z</time></trkpt><trkpt lat="41.72512778613194" lon="1.3587201383826106"><ele>643.0</ele><time>2026-03-30T09:53:40Z</time></trkpt><trkpt lat="41.725185481944415" lon="1.358631954806038"><ele>643.0</ele><time>2026-03-30T09:53:41Z</time></trkpt><trkpt lat="41.72525217108371" lon="1.3585124906393948"><ele>643.0</ele><time>2026-03-30T09:53:42Z</time></trkpt><trkpt lat="41.725312525293475" lon="1.3583423730571482"><ele>643.0</ele><time>2026-03-30T09:53:43Z</time></trkpt><trkpt lat="41.72540361667574" lon="1.3581380055541488"><ele>640.3333333333334</ele><time>2026-03-30T09:53:44Z</time></trkpt><trkpt lat="41.72547999912956" lon="1.3579014598864647"><ele>637.6666666666666</ele><time>2026-03-30T09:53:45Z</time></trkpt><trkpt lat="41.725546312491616" lon="1.3576873752701093"><ele>635.0</ele><time>2026-03-30T09:53:46Z</time></trkpt><trkpt lat="41.725618848820446" lon="1.3574493095551132"><ele>634.6666666666666</ele><time>2026-03-30T09:53:47Z</time></trkpt><trkpt lat="41.725685229195555" lon="1.3571891419183524"><ele>634.3333333333334</ele><time>2026-03-30T09:53:48Z</time></trkpt><trkpt lat="41.725768618088665" lon="1.3569516876366303"><ele>634.0</ele><time>2026-03-30T09:53:49Z</time></trkpt><trkpt lat="41.725849627134004" lon="1.3567047303894268"><ele>634.0</ele><time>2026-03-30T09:53:50Z</time></trkpt><trkpt lat="41.72593412116757" lon="1.356454673251992"><ele>634.0</ele><time>2026-03-30T09:53:51Z</time></trkpt><trkpt lat="41.726018976899354" lon="1.356191797721129"><ele>634.0</ele><time>2026-03-30T09:53:52Z</time></trkpt><trkpt lat="41.726098585712926" lon="1.3559201734804056"><ele>632.3333333333334</ele><time>2026-03-30T09:53:53Z</time></trkpt><trkpt lat="41.72617781308307" lon="1.355644210916722"><ele>630.6666666666666</ele><time>2026-03-30T09:53:54Z</time></trkpt><trkpt lat="41.72625861797015" lon="1.3553682937872709"><ele>629.0</ele><time>2026-03-30T09:53:55Z</time></trkpt><trkpt lat="41.72633884713276" lon="1.355099470198119"><ele>629.0</ele><time>2026-03-30T09:53:56Z</time></trkpt><trkpt lat="41.72641613353973" lon="1.3548368112463027"><ele>629.0</ele><time>2026-03-30T09:53:57Z</time></trkpt><trkpt lat="41.72648616172886" lon="1.3545755977390468"><ele>629.0</ele><time>2026-03-30T09:53:58Z</time></trkpt><trkpt lat="41.72654256447505" lon="1.3542979625589786"><ele>629.3333333333333</ele><time>2026-03-30T09:53:59Z</time></trkpt><trkpt lat="41.726583756232465" lon="1.3540111946718323"><ele>629.6666666666666</ele><time>2026-03-30T09:54:00Z</time></trkpt><trkpt lat="41.726616108902014" lon="1.3537132026413186"><ele>630.0</ele><time>2026-03-30T09:54:01Z</time></trkpt><trkpt lat="41.72664384116465" lon="1.353409976886173"><ele>630.0</ele><time>2026-03-30T09:54:02Z</time></trkpt><trkpt lat="41.72667192757432" lon="1.353084433177551"><ele>630.0</ele><time>2026-03-30T09:54:03Z</time></trkpt><trkpt lat="41.72670132216849" lon="1.3527629277848532"><ele>629.0</ele><time>2026-03-30T09:54:04Z</time></trkpt><trkpt lat="41.72672737415213" lon="1.3524452531216191"><ele>628.0</ele><time>2026-03-30T09:54:05Z</time></trkpt><trkpt lat="41.72675680063905" lon="1.35212833131401"><ele>625.5</ele><time>2026-03-30T09:54:06Z</time></trkpt><trkpt lat="41.72678959046261" lon="1.3518080278822577"><ele>623.0</ele><time>2026-03-30T09:54:07Z</time></trkpt><trkpt lat="41.72681974895116" lon="1.351484743523926"><ele>622.0</ele><time>2026-03-30T09:54:08Z</time></trkpt><trkpt lat="41.72684668767175" lon="1.3511557409472006"><ele>621.0</ele><time>2026-03-30T09:54:09Z</time></trkpt><trkpt lat="41.72687654002041" lon="1.3508283262058651"><ele>620.0</ele><time>2026-03-30T09:54:10Z</time></trkpt><trkpt lat="41.72690928403956" lon="1.3505005929010465"><ele>619.0</ele><time>2026-03-30T09:54:11Z</time></trkpt><trkpt lat="41.72694105582121" lon="1.350168068239057"><ele>619.0</ele><time>2026-03-30T09:54:12Z</time></trkpt><trkpt lat="41.726965855600824" lon="1.3498472216372082"><ele>619.0</ele><time>2026-03-30T09:54:13Z</time></trkpt><trkpt lat="41.72699385629522" lon="1.3495177719148714"><ele>619.0</ele><time>2026-03-30T09:54:14Z</time></trkpt><trkpt lat="41.72702562054905" lon="1.349187588608417"><ele>619.0</ele><time>2026-03-30T09:54:15Z</time></trkpt><trkpt lat="41.72705614229861" lon="1.348863918148126"><ele>617.0</ele><time>2026-03-30T09:54:16Z</time></trkpt><trkpt lat="41.727086619460245" lon="1.3485383787634442"><ele>615.0</ele><time>2026-03-30T09:54:17Z</time></trkpt><trkpt lat="41.72711468886065" lon="1.3482230301406504"><ele>613.5</ele><time>2026-03-30T09:54:18Z</time></trkpt><trkpt lat="41.727147200008" lon="1.347898125937445"><ele>612.0</ele><time>2026-03-30T09:54:19Z</time></trkpt><trkpt lat="41.727184792840234" lon="1.3475760326009456"><ele>612.0</ele><time>2026-03-30T09:54:20Z</time></trkpt><trkpt lat="41.72722520011341" lon="1.3472600852099346"><ele>612.0</ele><time>2026-03-30T09:54:21Z</time></trkpt><trkpt lat="41.72726259514453" lon="1.3469494938317896"><ele>611.5</ele><time>2026-03-30T09:54:22Z</time></trkpt><trkpt lat="41.7272998691918" lon="1.3466432070775658"><ele>611.0</ele><time>2026-03-30T09:54:23Z</time></trkpt><trkpt lat="41.72733802596667" lon="1.3463353556252116"><ele>610.5</ele><time>2026-03-30T09:54:24Z</time></trkpt><trkpt lat="41.727377775687664" lon="1.346032386451085"><ele>610.0</ele><time>2026-03-30T09:54:25Z</time></trkpt><trkpt lat="41.727421651225704" lon="1.3457042702698296"><ele>608.5</ele><time>2026-03-30T09:54:26Z</time></trkpt><trkpt lat="41.727467259838946" lon="1.3453550749446546"><ele>607.0</ele><time>2026-03-30T09:54:27Z</time></trkpt><trkpt lat="41.72751989128679" lon="1.3450080142726308"><ele>606.5</ele><time>2026-03-30T09:54:28Z</time></trkpt><trkpt lat="41.72756961676219" lon="1.3446698587539416"><ele>606.0</ele><time>2026-03-30T09:54:29Z</time></trkpt><trkpt lat="41.72762258679673" lon="1.3443376488971164"><ele>606.0</ele><time>2026-03-30T09:54:30Z</time></trkpt><trkpt lat="41.727675142013354" lon="1.3440091739925888"><ele>606.0</ele><time>2026-03-30T09:54:31Z</time></trkpt><trkpt lat="41.72772595696505" lon="1.3436848014798581"><ele>604.0</ele><time>2026-03-30T09:54:32Z</time></trkpt><trkpt lat="41.727780557345056" lon="1.343355523494214"><ele>602.0</ele><time>2026-03-30T09:54:33Z</time></trkpt><trkpt lat="41.72783623345285" lon="1.343037164823611"><ele>601.5</ele><time>2026-03-30T09:54:34Z</time></trkpt><trkpt lat="41.72789379186722" lon="1.3427136905334305"><ele>601.0</ele><time>2026-03-30T09:54:35Z</time></trkpt><trkpt lat="41.72795276371786" lon="1.3423931350481093"><ele>600.5</ele><time>2026-03-30T09:54:36Z</time></trkpt><trkpt lat="41.72801501770863" lon="1.3420747040554315"><ele>600.0</ele><time>2026-03-30T09:54:37Z</time></trkpt><trkpt lat="41.728078528551634" lon="1.3417545712992898"><ele>600.0</ele><time>2026-03-30T09:54:38Z</time></trkpt><trkpt lat="41.72814386721823" lon="1.3414265290151708"><ele>600.0</ele><time>2026-03-30T09:54:39Z</time></trkpt><trkpt lat="41.72820869781732" lon="1.34109631077536"><ele>601.0</ele><time>2026-03-30T09:54:40Z</time></trkpt><trkpt lat="41.7282751115007" lon="1.3407632169146944"><ele>602.0</ele><time>2026-03-30T09:54:41Z</time></trkpt><trkpt lat="41.72834100350942" lon="1.3404356350067805"><ele>602.0</ele><time>2026-03-30T09:54:42Z</time></trkpt><trkpt lat="41.72840590201637" lon="1.340096813537898"><ele>602.0</ele><time>2026-03-30T09:54:43Z</time></trkpt><trkpt lat="41.72847613459188" lon="1.339758273115591"><ele>601.5</ele><time>2026-03-30T09:54:44Z</time></trkpt><trkpt lat="41.72854752253148" lon="1.3394150441512793"><ele>601.0</ele><time>2026-03-30T09:54:45Z</time></trkpt><trkpt lat="41.72861492703567" lon="1.3390794476446088"><ele>597.5</ele><time>2026-03-30T09:54:46Z</time></trkpt><trkpt lat="41.72867959692574" lon="1.3387384479021631"><ele>594.0</ele><time>2026-03-30T09:54:47Z</time></trkpt><trkpt lat="41.728744329565664" lon="1.3384095095008577"><ele>594.0</ele><time>2026-03-30T09:54:48Z</time></trkpt><trkpt lat="41.72881020086818" lon="1.3380701299254862"><ele>594.0</ele><time>2026-03-30T09:54:49Z</time></trkpt><trkpt lat="41.728875440832105" lon="1.3377392184748755"><ele>593.5</ele><time>2026-03-30T09:54:50Z</time></trkpt><trkpt lat="41.72893949449649" lon="1.3374078404946554"><ele>593.0</ele><time>2026-03-30T09:54:51Z</time></trkpt><trkpt lat="41.72900465397759" lon="1.3370676548317304"><ele>594.0</ele><time>2026-03-30T09:54:52Z</time></trkpt><trkpt lat="41.729066863475495" lon="1.3367436185454677"><ele>595.0</ele><time>2026-03-30T09:54:53Z</time></trkpt><trkpt lat="41.72911362339062" lon="1.3364238536862845"><ele>593.5</ele><time>2026-03-30T09:54:54Z</time></trkpt><trkpt lat="41.72914683231585" lon="1.3361042551351285"><ele>592.0</ele><time>2026-03-30T09:54:55Z</time></trkpt><trkpt lat="41.72915462987316" lon="1.3357662195309628"><ele>591.0</ele><time>2026-03-30T09:54:56Z</time></trkpt><trkpt lat="41.72914522553544" lon="1.3354126884015078"><ele>590.0</ele><time>2026-03-30T09:54:57Z</time></trkpt><trkpt lat="41.7291327836794" lon="1.335064518326623"><ele>588.5</ele><time>2026-03-30T09:54:58Z</time></trkpt><trkpt lat="41.729118193574614" lon="1.334711115204689"><ele>587.0</ele><time>2026-03-30T09:54:59Z</time></trkpt><trkpt lat="41.729103295494234" lon="1.3343599699808162"><ele>587.0</ele><time>2026-03-30T09:55:00Z</time></trkpt><trkpt lat="41.72909122238312" lon="1.3340099019768343"><ele>587.0</ele><time>2026-03-30T09:55:01Z</time></trkpt><trkpt lat="41.72907872393688" lon="1.3336723801360768"><ele>586.0</ele><time>2026-03-30T09:55:02Z</time></trkpt><trkpt lat="41.729068934685266" lon="1.333361206747003"><ele>585.0</ele><time>2026-03-30T09:55:03Z</time></trkpt><trkpt lat="41.729065438797214" lon="1.33306077885415"><ele>584.5</ele><time>2026-03-30T09:55:04Z</time></trkpt><trkpt lat="41.72908714235981" lon="1.3327613034137324"><ele>584.0</ele><time>2026-03-30T09:55:05Z</time></trkpt><trkpt lat="41.72914442605677" lon="1.3324488005443473"><ele>582.5</ele><time>2026-03-30T09:55:06Z</time></trkpt><trkpt lat="41.72923138124859" lon="1.3321409207344086"><ele>581.0</ele><time>2026-03-30T09:55:07Z</time></trkpt><trkpt lat="41.72934584605811" lon="1.3318567206537308"><ele>579.5</ele><time>2026-03-30T09:55:08Z</time></trkpt><trkpt lat="41.72949366591127" lon="1.3316015632976894"><ele>578.0</ele><time>2026-03-30T09:55:09Z</time></trkpt><trkpt lat="41.72966041498007" lon="1.3313772599157243"><ele>578.0</ele><time>2026-03-30T09:55:10Z</time></trkpt><trkpt lat="41.72982375554501" lon="1.331157473932537"><ele>578.0</ele><time>2026-03-30T09:55:11Z</time></trkpt><trkpt lat="41.72997777092168" lon="1.3309397815195219"><ele>578.0</ele><time>2026-03-30T09:55:12Z</time></trkpt><trkpt lat="41.730130090621294" lon="1.3307207037352573"><ele>578.0</ele><time>2026-03-30T09:55:13Z</time></trkpt><trkpt lat="41.73027971978016" lon="1.33050213655902"><ele>578.0</ele><time>2026-03-30T09:55:14Z</time></trkpt><trkpt lat="41.73042865331283" lon="1.3302726823581328"><ele>578.0</ele><time>2026-03-30T09:55:15Z</time></trkpt><trkpt lat="41.73057940542203" lon="1.3300385199157208"><ele>578.0</ele><time>2026-03-30T09:55:16Z</time></trkpt><trkpt lat="41.73073266236269" lon="1.329800772894624"><ele>579.5</ele><time>2026-03-30T09:55:17Z</time></trkpt><trkpt lat="41.73087898459149" lon="1.3295526280475418"><ele>581.0</ele><time>2026-03-30T09:55:18Z</time></trkpt><trkpt lat="41.731021300672744" lon="1.3292841492603875"><ele>577.5</ele><time>2026-03-30T09:55:19Z</time></trkpt><trkpt lat="41.731171416245886" lon="1.3289997768337518"><ele>574.0</ele><time>2026-03-30T09:55:20Z</time></trkpt><trkpt lat="41.73132798740019" lon="1.3286954727267546"><ele>573.5</ele><time>2026-03-30T09:55:21Z</time></trkpt><trkpt lat="41.73147907979496" lon="1.3283921170202126"><ele>573.0</ele><time>2026-03-30T09:55:22Z</time></trkpt><trkpt lat="41.731625185153845" lon="1.3280934674821985"><ele>574.0</ele><time>2026-03-30T09:55:23Z</time></trkpt><trkpt lat="41.73177172790166" lon="1.327806789270894"><ele>575.0</ele><time>2026-03-30T09:55:24Z</time></trkpt><trkpt lat="41.731919024271875" lon="1.3275214662493429"><ele>571.5</ele><time>2026-03-30T09:55:25Z</time></trkpt><trkpt lat="41.73206139116068" lon="1.32723742073624"><ele>568.0</ele><time>2026-03-30T09:55:26Z</time></trkpt><trkpt lat="41.73220602371676" lon="1.3269575026824216"><ele>568.0</ele><time>2026-03-30T09:55:27Z</time></trkpt><trkpt lat="41.73235128176441" lon="1.3266783678610636"><ele>568.0</ele><time>2026-03-30T09:55:28Z</time></trkpt><trkpt lat="41.732480463556996" lon="1.3263954522305539"><ele>568.5</ele><time>2026-03-30T09:55:29Z</time></trkpt><trkpt lat="41.732603272127285" lon="1.3260922278536782"><ele>569.0</ele><time>2026-03-30T09:55:30Z</time></trkpt><trkpt lat="41.73271417356857" lon="1.3257752323767509"><ele>566.0</ele><time>2026-03-30T09:55:31Z</time></trkpt><trkpt lat="41.73280903242013" lon="1.325455982615681"><ele>563.0</ele><time>2026-03-30T09:55:32Z</time></trkpt><trkpt lat="41.73290060233667" lon="1.3251336997804593"><ele>563.0</ele><time>2026-03-30T09:55:33Z</time></trkpt><trkpt lat="41.73299405269513" lon="1.324818407375482"><ele>563.0</ele><time>2026-03-30T09:55:34Z</time></trkpt><trkpt lat="41.73309154467265" lon="1.3245055751166832"><ele>562.5</ele><time>2026-03-30T09:55:35Z</time></trkpt><trkpt lat="41.73318428467496" lon="1.3241886757989119"><ele>562.0</ele><time>2026-03-30T09:55:36Z</time></trkpt><trkpt lat="41.73327329569478" lon="1.3238838188865782"><ele>562.0</ele><time>2026-03-30T09:55:37Z</time></trkpt><trkpt lat="41.73337072280154" lon="1.3235832759658175"><ele>562.0</ele><time>2026-03-30T09:55:38Z</time></trkpt><trkpt lat="41.73347769983277" lon="1.3232969874623892"><ele>559.5</ele><time>2026-03-30T09:55:39Z</time></trkpt><trkpt lat="41.733605499703295" lon="1.32301313228769"><ele>557.0</ele><time>2026-03-30T09:55:40Z</time></trkpt><trkpt lat="41.73375321923652" lon="1.322727676168158"><ele>557.0</ele><time>2026-03-30T09:55:41Z</time></trkpt><trkpt lat="41.73390617131356" lon="1.3224313800642151"><ele>557.0</ele><time>2026-03-30T09:55:42Z</time></trkpt><trkpt lat="41.734053327376074" lon="1.322130878484332"><ele>556.0</ele><time>2026-03-30T09:55:43Z</time></trkpt><trkpt lat="41.7341940824971" lon="1.3218467532168596"><ele>555.0</ele><time>2026-03-30T09:55:44Z</time></trkpt><trkpt lat="41.73433133882304" lon="1.321574842811166"><ele>552.0</ele><time>2026-03-30T09:55:45Z</time></trkpt><trkpt lat="41.734465587394844" lon="1.3212978490831415"><ele>549.0</ele><time>2026-03-30T09:55:46Z</time></trkpt><trkpt lat="41.734601622507455" lon="1.3210188740369637"><ele>549.0</ele><time>2026-03-30T09:55:47Z</time></trkpt><trkpt lat="41.73473686219243" lon="1.3207461431027268"><ele>549.0</ele><time>2026-03-30T09:55:48Z</time></trkpt><trkpt lat="41.73487253810169" lon="1.3204759246349673"><ele>548.0</ele><time>2026-03-30T09:55:49Z</time></trkpt><trkpt lat="41.73500315093287" lon="1.3202051430140387"><ele>547.0</ele><time>2026-03-30T09:55:50Z</time></trkpt><trkpt lat="41.735138823072035" lon="1.3199202351943922"><ele>545.5</ele><time>2026-03-30T09:55:51Z</time></trkpt><trkpt lat="41.73526663794906" lon="1.3196339762994858"><ele>544.0</ele><time>2026-03-30T09:55:52Z</time></trkpt><trkpt lat="41.73536773687095" lon="1.3193308712552898"><ele>544.0</ele><time>2026-03-30T09:55:53Z</time></trkpt><trkpt lat="41.73544971903622" lon="1.3190186111598816"><ele>544.0</ele><time>2026-03-30T09:55:54Z</time></trkpt><trkpt lat="41.735528571525286" lon="1.318706477209847"><ele>542.0</ele><time>2026-03-30T09:55:55Z</time></trkpt><trkpt lat="41.73561054430393" lon="1.318399094036948"><ele>540.0</ele><time>2026-03-30T09:55:56Z</time></trkpt><trkpt lat="41.73570080271556" lon="1.3180903797594563"><ele>538.0</ele><time>2026-03-30T09:55:57Z</time></trkpt><trkpt lat="41.73580656644237" lon="1.3177910055102284"><ele>536.0</ele><time>2026-03-30T09:55:58Z</time></trkpt><trkpt lat="41.73592323779837" lon="1.317508339382169"><ele>535.5</ele><time>2026-03-30T09:55:59Z</time></trkpt><trkpt lat="41.73605873521391" lon="1.3172309117478953"><ele>535.0</ele><time>2026-03-30T09:56:00Z</time></trkpt><trkpt lat="41.736200104081085" lon="1.3169577212877455"><ele>535.0</ele><time>2026-03-30T09:56:01Z</time></trkpt><trkpt lat="41.73633914659253" lon="1.316678009256675"><ele>535.0</ele><time>2026-03-30T09:56:02Z</time></trkpt><trkpt lat="41.7364744251632" lon="1.3163885279436394"><ele>534.0</ele><time>2026-03-30T09:56:03Z</time></trkpt><trkpt lat="41.73661020129382" lon="1.3160835223247431"><ele>533.0</ele><time>2026-03-30T09:56:04Z</time></trkpt><trkpt lat="41.73674311614794" lon="1.3157707142035044"><ele>532.5</ele><time>2026-03-30T09:56:05Z</time></trkpt><trkpt lat="41.73686867122138" lon="1.315453845543014"><ele>532.0</ele><time>2026-03-30T09:56:06Z</time></trkpt><trkpt lat="41.73698086728338" lon="1.3151441464122735"><ele>531.0</ele><time>2026-03-30T09:56:07Z</time></trkpt><trkpt lat="41.7370893823034" lon="1.3148218544055477"><ele>530.0</ele><time>2026-03-30T09:56:08Z</time></trkpt><trkpt lat="41.73719078837652" lon="1.3144981398024522"><ele>529.5</ele><time>2026-03-30T09:56:09Z</time></trkpt><trkpt lat="41.73728237066548" lon="1.314168180212023"><ele>529.0</ele><time>2026-03-30T09:56:10Z</time></trkpt><trkpt lat="41.73736871639979" lon="1.313830836183058"><ele>528.0</ele><time>2026-03-30T09:56:11Z</time></trkpt><trkpt lat="41.73744608673207" lon="1.3134918739849057"><ele>527.0</ele><time>2026-03-30T09:56:12Z</time></trkpt><trkpt lat="41.737513454900636" lon="1.3131495644371176"><ele>525.5</ele><time>2026-03-30T09:56:13Z</time></trkpt><trkpt lat="41.737571650235076" lon="1.312808522806413"><ele>524.0</ele><time>2026-03-30T09:56:14Z</time></trkpt><trkpt lat="41.73761989277137" lon="1.3124644945777064"><ele>523.0</ele><time>2026-03-30T09:56:15Z</time></trkpt><trkpt lat="41.73766583663326" lon="1.3121217899337358"><ele>522.0</ele><time>2026-03-30T09:56:16Z</time></trkpt><trkpt lat="41.73770883205987" lon="1.3117802185085832"><ele>521.5</ele><time>2026-03-30T09:56:17Z</time></trkpt><trkpt lat="41.737745270458426" lon="1.3114432514533563"><ele>521.0</ele><time>2026-03-30T09:56:18Z</time></trkpt><trkpt lat="41.737781745316724" lon="1.311112170935867"><ele>519.5</ele><time>2026-03-30T09:56:19Z</time></trkpt><trkpt lat="41.737821963558766" lon="1.3107926673925019"><ele>518.0</ele><time>2026-03-30T09:56:20Z</time></trkpt><trkpt lat="41.737874176263944" lon="1.3104753693051052"><ele>517.0</ele><time>2026-03-30T09:56:21Z</time></trkpt><trkpt lat="41.737950110155715" lon="1.3101683344336852"><ele>516.0</ele><time>2026-03-30T09:56:22Z</time></trkpt><trkpt lat="41.738050425625644" lon="1.3098707407926717"><ele>514.5</ele><time>2026-03-30T09:56:23Z</time></trkpt><trkpt lat="41.73816330263546" lon="1.309590368548184"><ele>513.0</ele><time>2026-03-30T09:56:24Z</time></trkpt><trkpt lat="41.73829039054097" lon="1.3093224371294248"><ele>513.0</ele><time>2026-03-30T09:56:25Z</time></trkpt><trkpt lat="41.7384210763348" lon="1.3090658372951254"><ele>513.0</ele><time>2026-03-30T09:56:26Z</time></trkpt><trkpt lat="41.7385429114138" lon="1.3088104151665185"><ele>510.33333333333337</ele><time>2026-03-30T09:56:27Z</time></trkpt><trkpt lat="41.7386481937554" lon="1.308547547919237"><ele>507.6666666666667</ele><time>2026-03-30T09:56:28Z</time></trkpt><trkpt lat="41.73873297269884" lon="1.3082684772322988"><ele>505.0</ele><time>2026-03-30T09:56:29Z</time></trkpt><trkpt lat="41.73878451298832" lon="1.3079613929902827"><ele>502.5</ele><time>2026-03-30T09:56:30Z</time></trkpt><trkpt lat="41.73880388513129" lon="1.307633177368051"><ele>500.0</ele><time>2026-03-30T09:56:31Z</time></trkpt><trkpt lat="41.73880578105108" lon="1.3073032745537234"><ele>498.5</ele><time>2026-03-30T09:56:32Z</time></trkpt><trkpt lat="41.738784241788295" lon="1.306951654443046"><ele>497.0</ele><time>2026-03-30T09:56:33Z</time></trkpt><trkpt lat="41.73876023874693" lon="1.3066017435076764"><ele>497.0</ele><time>2026-03-30T09:56:34Z</time></trkpt><trkpt lat="41.73873913467263" lon="1.3062688917681915"><ele>497.0</ele><time>2026-03-30T09:56:35Z</time></trkpt><trkpt lat="41.73872283093214" lon="1.3059475765774455"><ele>497.0</ele><time>2026-03-30T09:56:36Z</time></trkpt><trkpt lat="41.73871131835182" lon="1.3056352452566125"><ele>497.0</ele><time>2026-03-30T09:56:37Z</time></trkpt><trkpt lat="41.73869492640343" lon="1.3053271997552336"><ele>496.5</ele><time>2026-03-30T09:56:38Z</time></trkpt><trkpt lat="41.73867927917885" lon="1.3050233312307697"><ele>496.0</ele><time>2026-03-30T09:56:39Z</time></trkpt><trkpt lat="41.73867484059503" lon="1.3047194509048867"><ele>495.0</ele><time>2026-03-30T09:56:40Z</time></trkpt><trkpt lat="41.738703130778056" lon="1.3044075917090174"><ele>494.0</ele><time>2026-03-30T09:56:41Z</time></trkpt><trkpt lat="41.73876051674688" lon="1.30410859261451"><ele>494.0</ele><time>2026-03-30T09:56:42Z</time></trkpt><trkpt lat="41.73884273360848" lon="1.3038172850967353"><ele>494.0</ele><time>2026-03-30T09:56:43Z</time></trkpt><trkpt lat="41.73892568762095" lon="1.303536334257731"><ele>494.0</ele><time>2026-03-30T09:56:44Z</time></trkpt><trkpt lat="41.73899920152832" lon="1.3032486577521663"><ele>494.0</ele><time>2026-03-30T09:56:45Z</time></trkpt><trkpt lat="41.739049646314086" lon="1.3029570761817564"><ele>493.5</ele><time>2026-03-30T09:56:46Z</time></trkpt><trkpt lat="41.739073683352025" lon="1.3026495009090102"><ele>493.0</ele><time>2026-03-30T09:56:47Z</time></trkpt><trkpt lat="41.739079687145264" lon="1.3023279268242707"><ele>493.5</ele><time>2026-03-30T09:56:48Z</time></trkpt><trkpt lat="41.73906377165241" lon="1.3019826854790753"><ele>494.0</ele><time>2026-03-30T09:56:49Z</time></trkpt><trkpt lat="41.739029646301944" lon="1.3016509179802367"><ele>494.0</ele><time>2026-03-30T09:56:50Z</time></trkpt><trkpt lat="41.73896951189719" lon="1.301312066507838"><ele>494.0</ele><time>2026-03-30T09:56:51Z</time></trkpt><trkpt lat="41.73889034458595" lon="1.3009831903246456"><ele>494.0</ele><time>2026-03-30T09:56:52Z</time></trkpt><trkpt lat="41.73880344632635" lon="1.3006520967071455"><ele>494.0</ele><time>2026-03-30T09:56:53Z</time></trkpt><trkpt lat="41.73872639760287" lon="1.3003301609397642"><ele>493.5</ele><time>2026-03-30T09:56:54Z</time></trkpt><trkpt lat="41.738654254799656" lon="1.3000209127142068"><ele>493.0</ele><time>2026-03-30T09:56:55Z</time></trkpt><trkpt lat="41.73857616904084" lon="1.2997038964790864"><ele>491.0</ele><time>2026-03-30T09:56:56Z</time></trkpt><trkpt lat="41.73849644986993" lon="1.2993866646929324"><ele>489.0</ele><time>2026-03-30T09:56:57Z</time></trkpt><trkpt lat="41.738416715338666" lon="1.2990634563474763"><ele>488.0</ele><time>2026-03-30T09:56:58Z</time></trkpt><trkpt lat="41.73833798462387" lon="1.2987369370547939"><ele>487.0</ele><time>2026-03-30T09:56:59Z</time></trkpt><trkpt lat="41.73825408863179" lon="1.2984044312672385"><ele>487.0</ele><time>2026-03-30T09:57:00Z</time></trkpt><trkpt lat="41.73816133161137" lon="1.2980706866495357"><ele>487.0</ele><time>2026-03-30T09:57:01Z</time></trkpt><trkpt lat="41.73806433871664" lon="1.297737674991492"><ele>487.0</ele><time>2026-03-30T09:57:02Z</time></trkpt><trkpt lat="41.73796403707778" lon="1.2973992987244272"><ele>487.0</ele><time>2026-03-30T09:57:03Z</time></trkpt><trkpt lat="41.73785968895767" lon="1.2970590696117061"><ele>489.5</ele><time>2026-03-30T09:57:04Z</time></trkpt><trkpt lat="41.7377518864807" lon="1.2967152300904679"><ele>492.0</ele><time>2026-03-30T09:57:05Z</time></trkpt><trkpt lat="41.737644111631475" lon="1.2963670541378056"><ele>486.5</ele><time>2026-03-30T09:57:06Z</time></trkpt><trkpt lat="41.73753657626352" lon="1.296024196713392"><ele>481.0</ele><time>2026-03-30T09:57:07Z</time></trkpt><trkpt lat="41.73743119596823" lon="1.2956808090069554"><ele>483.0</ele><time>2026-03-30T09:57:08Z</time></trkpt><trkpt lat="41.737325117125245" lon="1.2953398180881373"><ele>485.0</ele><time>2026-03-30T09:57:09Z</time></trkpt><trkpt lat="41.73721775846634" lon="1.295003537016431"><ele>488.0</ele><time>2026-03-30T09:57:10Z</time></trkpt><trkpt lat="41.73710840385321" lon="1.2946648552040665"><ele>491.0</ele><time>2026-03-30T09:57:11Z</time></trkpt><trkpt lat="41.73700925930572" lon="1.2943397242349108"><ele>491.0</ele><time>2026-03-30T09:57:12Z</time></trkpt><trkpt lat="41.73690951253669" lon="1.2940146359643347"><ele>491.0</ele><time>2026-03-30T09:57:13Z</time></trkpt><trkpt lat="41.736811212386364" lon="1.2936959974831996"><ele>489.5</ele><time>2026-03-30T09:57:14Z</time></trkpt><trkpt lat="41.736712811407536" lon="1.2933809737897068"><ele>488.0</ele><time>2026-03-30T09:57:15Z</time></trkpt><trkpt lat="41.73661457305241" lon="1.2930709566839407"><ele>488.0</ele><time>2026-03-30T09:57:16Z</time></trkpt><trkpt lat="41.73652295322475" lon="1.292768033161129"><ele>488.0</ele><time>2026-03-30T09:57:17Z</time></trkpt><trkpt lat="41.736423118086414" lon="1.292461279763141"><ele>490.5</ele><time>2026-03-30T09:57:18Z</time></trkpt><trkpt lat="41.73633176547731" lon="1.2921620429805394"><ele>493.0</ele><time>2026-03-30T09:57:19Z</time></trkpt><trkpt lat="41.73624117279354" lon="1.2918634914908056"><ele>493.0</ele><time>2026-03-30T09:57:20Z</time></trkpt><trkpt lat="41.73615931946942" lon="1.2915677196227326"><ele>493.0</ele><time>2026-03-30T09:57:21Z</time></trkpt><trkpt lat="41.736092419103514" lon="1.2912551463866209"><ele>483.0</ele><time>2026-03-30T09:57:22Z</time></trkpt><trkpt lat="41.73603557129026" lon="1.290924017552841"><ele>473.0</ele><time>2026-03-30T09:57:23Z</time></trkpt><trkpt lat="41.73598983942597" lon="1.2906024072027587"><ele>471.5</ele><time>2026-03-30T09:57:24Z</time></trkpt><trkpt lat="41.73594147262894" lon="1.2902749598807068"><ele>470.0</ele><time>2026-03-30T09:57:25Z</time></trkpt><trkpt lat="41.73588309879268" lon="1.2899412257863527"><ele>470.0</ele><time>2026-03-30T09:57:26Z</time></trkpt><trkpt lat="41.73581732118199" lon="1.2896114092490907"><ele>470.0</ele><time>2026-03-30T09:57:27Z</time></trkpt><trkpt lat="41.735738567799295" lon="1.2892694936245506"><ele>470.0</ele><time>2026-03-30T09:57:28Z</time></trkpt><trkpt lat="41.735657620172745" lon="1.2889319716534373"><ele>470.0</ele><time>2026-03-30T09:57:29Z</time></trkpt><trkpt lat="41.735573643847964" lon="1.288595975536442"><ele>471.5</ele><time>2026-03-30T09:57:30Z</time></trkpt><trkpt lat="41.735490010386854" lon="1.2882577175971106"><ele>473.0</ele><time>2026-03-30T09:57:31Z</time></trkpt><trkpt lat="41.73540716514446" lon="1.287914836975551"><ele>475.5</ele><time>2026-03-30T09:57:32Z</time></trkpt><trkpt lat="41.73532536960936" lon="1.2875813419659508"><ele>478.0</ele><time>2026-03-30T09:57:33Z</time></trkpt><trkpt lat="41.73524393530123" lon="1.2872569231456676"><ele>474.0</ele><time>2026-03-30T09:57:34Z</time></trkpt><trkpt lat="41.73516051587638" lon="1.286937504567538"><ele>470.0</ele><time>2026-03-30T09:57:35Z</time></trkpt><trkpt lat="41.735078705289396" lon="1.2866157124263875"><ele>470.0</ele><time>2026-03-30T09:57:36Z</time></trkpt><trkpt lat="41.73499958064843" lon="1.286288601718187"><ele>470.0</ele><time>2026-03-30T09:57:37Z</time></trkpt><trkpt lat="41.73491911581404" lon="1.2859600239519575"><ele>470.0</ele><time>2026-03-30T09:57:38Z</time></trkpt><trkpt lat="41.73484063415451" lon="1.2856309949967797"><ele>470.0</ele><time>2026-03-30T09:57:39Z</time></trkpt><trkpt lat="41.73476239441721" lon="1.2853028903910528"><ele>472.0</ele><time>2026-03-30T09:57:40Z</time></trkpt><trkpt lat="41.73468236169517" lon="1.2849768696011326"><ele>474.0</ele><time>2026-03-30T09:57:41Z</time></trkpt><trkpt lat="41.73460191633771" lon="1.2846551821967414"><ele>476.0</ele><time>2026-03-30T09:57:42Z</time></trkpt><trkpt lat="41.734522727950726" lon="1.284336795872353"><ele>478.0</ele><time>2026-03-30T09:57:43Z</time></trkpt><trkpt lat="41.73444121076098" lon="1.2840087751994909"><ele>471.5</ele><time>2026-03-30T09:57:44Z</time></trkpt><trkpt lat="41.73436207258222" lon="1.2836851933543298"><ele>465.0</ele><time>2026-03-30T09:57:45Z</time></trkpt><trkpt lat="41.73427973485986" lon="1.2833612980894713"><ele>465.0</ele><time>2026-03-30T09:57:46Z</time></trkpt><trkpt lat="41.73419855174244" lon="1.2830322645825831"><ele>465.0</ele><time>2026-03-30T09:57:47Z</time></trkpt><trkpt lat="41.734124286052364" lon="1.282701237526595"><ele>465.0</ele><time>2026-03-30T09:57:48Z</time></trkpt><trkpt lat="41.73404721491085" lon="1.2823716054454526"><ele>465.0</ele><time>2026-03-30T09:57:49Z</time></trkpt><trkpt lat="41.733962816447956" lon="1.282044074521546"><ele>466.0</ele><time>2026-03-30T09:57:50Z</time></trkpt><trkpt lat="41.733879940234345" lon="1.2817141604150433"><ele>467.0</ele><time>2026-03-30T09:57:51Z</time></trkpt><trkpt lat="41.733800671145126" lon="1.281386689481206"><ele>468.0</ele><time>2026-03-30T09:57:52Z</time></trkpt><trkpt lat="41.73371926998143" lon="1.2810627932605159"><ele>469.0</ele><time>2026-03-30T09:57:53Z</time></trkpt><trkpt lat="41.73363592222319" lon="1.2807346384201126"><ele>466.5</ele><time>2026-03-30T09:57:54Z</time></trkpt><trkpt lat="41.73354781064561" lon="1.2804190017927333"><ele>464.0</ele><time>2026-03-30T09:57:55Z</time></trkpt><trkpt lat="41.73344753793946" lon="1.2801060964005513"><ele>464.0</ele><time>2026-03-30T09:57:56Z</time></trkpt><trkpt lat="41.73332453545998" lon="1.2798043995851502"><ele>464.0</ele><time>2026-03-30T09:57:57Z</time></trkpt><trkpt lat="41.73318954554742" lon="1.2795216488262322"><ele>466.5</ele><time>2026-03-30T09:57:58Z</time></trkpt><trkpt lat="41.733044850141304" lon="1.279248680313622"><ele>469.0</ele><time>2026-03-30T09:57:59Z</time></trkpt><trkpt lat="41.73288708451916" lon="1.2790027016825212"><ele>469.5</ele><time>2026-03-30T09:58:00Z</time></trkpt><trkpt lat="41.73272312357444" lon="1.2787716373975675"><ele>470.0</ele><time>2026-03-30T09:58:01Z</time></trkpt><trkpt lat="41.7325537292703" lon="1.278562833950746"><ele>470.0</ele><time>2026-03-30T09:58:02Z</time></trkpt><trkpt lat="41.73239134220837" lon="1.2783786999408506"><ele>470.0</ele><time>2026-03-30T09:58:03Z</time></trkpt><trkpt lat="41.732244758477705" lon="1.278205087796535"><ele>470.0</ele><time>2026-03-30T09:58:04Z</time></trkpt><trkpt lat="41.732102145917565" lon="1.2780292132245616"><ele>470.0</ele><time>2026-03-30T09:58:05Z</time></trkpt><trkpt lat="41.7319637608143" lon="1.2778555187893625"><ele>470.0</ele><time>2026-03-30T09:58:06Z</time></trkpt><trkpt lat="41.73183354624484" lon="1.2776871616958905"><ele>470.0</ele><time>2026-03-30T09:58:07Z</time></trkpt><trkpt lat="41.7317201361599" lon="1.277526509294859"><ele>469.66666666666663</ele><time>2026-03-30T09:58:08Z</time></trkpt><trkpt lat="41.73162462610906" lon="1.2773663353951814"><ele>469.33333333333337</ele><time>2026-03-30T09:58:09Z</time></trkpt><trkpt lat="41.7315369141402" lon="1.2771985875301612"><ele>469.0</ele><time>2026-03-30T09:58:10Z</time></trkpt><trkpt lat="41.73145555027788" lon="1.2770292866438955"><ele>469.0</ele><time>2026-03-30T09:58:11Z</time></trkpt><trkpt lat="41.73137255655424" lon="1.276856888124462"><ele>469.0</ele><time>2026-03-30T09:58:12Z</time></trkpt><trkpt lat="41.73129667621819" lon="1.2767104842403583"><ele>469.0</ele><time>2026-03-30T09:58:13Z</time></trkpt><trkpt lat="41.73123186279615" lon="1.276573480025492"><ele>469.0</ele><time>2026-03-30T09:58:14Z</time></trkpt><trkpt lat="41.73117846284385" lon="1.2764263991004834"><ele>468.6</ele><time>2026-03-30T09:58:15Z</time></trkpt><trkpt lat="41.73114775187262" lon="1.276265707171208"><ele>468.2</ele><time>2026-03-30T09:58:16Z</time></trkpt><trkpt lat="41.73114871295753" lon="1.2761229457259073"><ele>467.80000000000007</ele><time>2026-03-30T09:58:17Z</time></trkpt><trkpt lat="41.73116446687233" lon="1.2760043045574136"><ele>467.40000000000003</ele><time>2026-03-30T09:58:18Z</time></trkpt><trkpt lat="41.73118972499811" lon="1.275912970522771"><ele>467.0</ele><time>2026-03-30T09:58:19Z</time></trkpt><trkpt lat="41.731204474387894" lon="1.2758153226943447"><ele>467.0</ele><time>2026-03-30T09:58:20Z</time></trkpt><trkpt lat="41.73121918240348" lon="1.2757051277725577"><ele>467.0</ele><time>2026-03-30T09:58:21Z</time></trkpt><trkpt lat="41.7312440853546" lon="1.2755387064692754"><ele>467.0</ele><time>2026-03-30T09:58:22Z</time></trkpt><trkpt lat="41.7312692598981" lon="1.2753616406949044"><ele>467.0</ele><time>2026-03-30T09:58:23Z</time></trkpt><trkpt lat="41.73129058690606" lon="1.2751866206185776"><ele>466.5</ele><time>2026-03-30T09:58:24Z</time></trkpt><trkpt lat="41.73131603641488" lon="1.275021414463487"><ele>466.0</ele><time>2026-03-30T09:58:25Z</time></trkpt><trkpt lat="41.73133686188161" lon="1.2748685766882042"><ele>465.5</ele><time>2026-03-30T09:58:26Z</time></trkpt><trkpt lat="41.731353759504906" lon="1.2747180762261918"><ele>465.0</ele><time>2026-03-30T09:58:27Z</time></trkpt><trkpt lat="41.73137118901087" lon="1.2745627718601238"><ele>463.66666666666663</ele><time>2026-03-30T09:58:28Z</time></trkpt><trkpt lat="41.731383081624635" lon="1.274366924295143"><ele>462.3333333333333</ele><time>2026-03-30T09:58:29Z</time></trkpt><trkpt lat="41.731386611549944" lon="1.274147177472122"><ele>461.0</ele><time>2026-03-30T09:58:30Z</time></trkpt><trkpt lat="41.731384809943236" lon="1.273916742480393"><ele>460.3333333333333</ele><time>2026-03-30T09:58:31Z</time></trkpt><trkpt lat="41.73137342304531" lon="1.2736831279654848"><ele>459.66666666666663</ele><time>2026-03-30T09:58:32Z</time></trkpt><trkpt lat="41.73135973495416" lon="1.2734610723429862"><ele>459.0</ele><time>2026-03-30T09:58:33Z</time></trkpt><trkpt lat="41.73134282002628" lon="1.2732346904994962"><ele>458.0</ele><time>2026-03-30T09:58:34Z</time></trkpt><trkpt lat="41.73132957320402" lon="1.2730070343948632"><ele>457.0</ele><time>2026-03-30T09:58:35Z</time></trkpt><trkpt lat="41.731314286415504" lon="1.2727756752501465"><ele>456.0</ele><time>2026-03-30T09:58:36Z</time></trkpt><trkpt lat="41.731303066546964" lon="1.2725463419908924"><ele>456.0</ele><time>2026-03-30T09:58:37Z</time></trkpt><trkpt lat="41.731290395436076" lon="1.2723172086989274"><ele>456.0</ele><time>2026-03-30T09:58:38Z</time></trkpt><trkpt lat="41.73127794279846" lon="1.272091233757575"><ele>456.0</ele><time>2026-03-30T09:58:39Z</time></trkpt><trkpt lat="41.73126339739231" lon="1.2718777838565625"><ele>455.5</ele><time>2026-03-30T09:58:40Z</time></trkpt><trkpt lat="41.73125315157463" lon="1.2716723824288638"><ele>455.0</ele><time>2026-03-30T09:58:41Z</time></trkpt><trkpt lat="41.73124211888887" lon="1.2714744036264307"><ele>454.5</ele><time>2026-03-30T09:58:42Z</time></trkpt><trkpt lat="41.73123772649273" lon="1.2712896793926967"><ele>454.0</ele><time>2026-03-30T09:58:43Z</time></trkpt><trkpt lat="41.73127650535517" lon="1.2711565038002461"><ele>453.25</ele><time>2026-03-30T09:58:44Z</time></trkpt><trkpt lat="41.731328953309955" lon="1.2710256789054029"><ele>452.5</ele><time>2026-03-30T09:58:45Z</time></trkpt><trkpt lat="41.731381026420536" lon="1.270889639722482"><ele>451.75</ele><time>2026-03-30T09:58:46Z</time></trkpt><trkpt lat="41.731388724678695" lon="1.27070213535504"><ele>451.0</ele><time>2026-03-30T09:58:47Z</time></trkpt><trkpt lat="41.73139489389474" lon="1.2704898801935756"><ele>450.0</ele><time>2026-03-30T09:58:48Z</time></trkpt><trkpt lat="41.73142108558486" lon="1.2702747342974559"><ele>449.0</ele><time>2026-03-30T09:58:49Z</time></trkpt><trkpt lat="41.7314684167329" lon="1.2700498402703044"><ele>448.0</ele><time>2026-03-30T09:58:50Z</time></trkpt><trkpt lat="41.73152495800295" lon="1.2698199325162047"><ele>448.0</ele><time>2026-03-30T09:58:51Z</time></trkpt><trkpt lat="41.73157618516562" lon="1.2695913130289613"><ele>448.0</ele><time>2026-03-30T09:58:52Z</time></trkpt><trkpt lat="41.73162818433829" lon="1.2693661308409487"><ele>448.0</ele><time>2026-03-30T09:58:53Z</time></trkpt><trkpt lat="41.73168452637964" lon="1.2691439031559557"><ele>447.6666666666667</ele><time>2026-03-30T09:58:54Z</time></trkpt><trkpt lat="41.731740168805196" lon="1.2689085974705796"><ele>447.33333333333337</ele><time>2026-03-30T09:58:55Z</time></trkpt><trkpt lat="41.73179702657003" lon="1.268653480624978"><ele>447.0</ele><time>2026-03-30T09:58:56Z</time></trkpt><trkpt lat="41.731855373472214" lon="1.2683927926919758"><ele>447.0</ele><time>2026-03-30T09:58:57Z</time></trkpt><trkpt lat="41.73191459338833" lon="1.2681330947985876"><ele>447.0</ele><time>2026-03-30T09:58:58Z</time></trkpt><trkpt lat="41.731971303029894" lon="1.2678741512183167"><ele>447.0</ele><time>2026-03-30T09:58:59Z</time></trkpt><trkpt lat="41.732025899114404" lon="1.267615339031943"><ele>446.66666666666663</ele><time>2026-03-30T09:59:00Z</time></trkpt><trkpt lat="41.7320823625427" lon="1.2673591287666541"><ele>446.3333333333333</ele><time>2026-03-30T09:59:01Z</time></trkpt><trkpt lat="41.73214136311753" lon="1.2671022751105205"><ele>446.0</ele><time>2026-03-30T09:59:02Z</time></trkpt><trkpt lat="41.73219905710037" lon="1.2668474165686225"><ele>447.0</ele><time>2026-03-30T09:59:03Z</time></trkpt><trkpt lat="41.7322510660277" lon="1.2665943725737425"><ele>448.0</ele><time>2026-03-30T09:59:04Z</time></trkpt><trkpt lat="41.73229526476287" lon="1.266344810450381"><ele>449.0</ele><time>2026-03-30T09:59:05Z</time></trkpt><trkpt lat="41.732329546460086" lon="1.2660926292417547"><ele>449.3333333333333</ele><time>2026-03-30T09:59:06Z</time></trkpt><trkpt lat="41.73234965918711" lon="1.2658392720551679"><ele>449.66666666666663</ele><time>2026-03-30T09:59:07Z</time></trkpt><trkpt lat="41.73236180323273" lon="1.2655760433825225"><ele>450.0</ele><time>2026-03-30T09:59:08Z</time></trkpt><trkpt lat="41.73236435857373" lon="1.265299910185647"><ele>450.0</ele><time>2026-03-30T09:59:09Z</time></trkpt><trkpt lat="41.73235595144281" lon="1.2650206466600236"><ele>450.0</ele><time>2026-03-30T09:59:10Z</time></trkpt><trkpt lat="41.732334422367806" lon="1.2647425113395492"><ele>450.0</ele><time>2026-03-30T09:59:11Z</time></trkpt><trkpt lat="41.7323024644781" lon="1.2644657452754793"><ele>449.33333333333337</ele><time>2026-03-30T09:59:12Z</time></trkpt><trkpt lat="41.73226184676929" lon="1.264191546865156"><ele>448.6666666666667</ele><time>2026-03-30T09:59:13Z</time></trkpt><trkpt lat="41.732216482407665" lon="1.2639221570507337"><ele>448.0</ele><time>2026-03-30T09:59:14Z</time></trkpt><trkpt lat="41.732153388738766" lon="1.2636470769410404"><ele>448.0</ele><time>2026-03-30T09:59:15Z</time></trkpt><trkpt lat="41.73209349529613" lon="1.263383148000174"><ele>448.0</ele><time>2026-03-30T09:59:16Z</time></trkpt><trkpt lat="41.73204190971127" lon="1.2631324892487346"><ele>448.0</ele><time>2026-03-30T09:59:17Z</time></trkpt><trkpt lat="41.73198847661" lon="1.262900315176426"><ele>448.6666666666667</ele><time>2026-03-30T09:59:18Z</time></trkpt><trkpt lat="41.7319432464149" lon="1.2626798942895467"><ele>449.33333333333337</ele><time>2026-03-30T09:59:19Z</time></trkpt><trkpt lat="41.73189770007225" lon="1.2624602271391032"><ele>450.0</ele><time>2026-03-30T09:59:20Z</time></trkpt><trkpt lat="41.731848369915966" lon="1.2622399712667294"><ele>448.0</ele><time>2026-03-30T09:59:21Z</time></trkpt><trkpt lat="41.73180291529926" lon="1.2620297916580567"><ele>446.0</ele><time>2026-03-30T09:59:22Z</time></trkpt><trkpt lat="41.731768294977265" lon="1.261866086193698"><ele>444.0</ele><time>2026-03-30T09:59:23Z</time></trkpt><trkpt lat="41.731741163681065" lon="1.261739038822978"><ele>442.0</ele><time>2026-03-30T09:59:24Z</time></trkpt><trkpt lat="41.731722285056016" lon="1.2616439312988335"><ele>442.0</ele><time>2026-03-30T09:59:25Z</time></trkpt><trkpt lat="41.73170208524845" lon="1.261553159520718"><ele>442.00000000000006</ele><time>2026-03-30T09:59:26Z</time></trkpt><trkpt lat="41.73167480012951" lon="1.2614393552130216"><ele>442.00000000000006</ele><time>2026-03-30T09:59:27Z</time></trkpt><trkpt lat="41.731642639262375" lon="1.2612949693863715"><ele>442.0</ele><time>2026-03-30T09:59:28Z</time></trkpt><trkpt lat="41.73160789271806" lon="1.2611252850573003"><ele>442.0</ele><time>2026-03-30T09:59:29Z</time></trkpt><trkpt lat="41.731569795893485" lon="1.2609284315353921"><ele>442.0</ele><time>2026-03-30T09:59:30Z</time></trkpt><trkpt lat="41.73153673974958" lon="1.2607450888785499"><ele>442.0</ele><time>2026-03-30T09:59:31Z</time></trkpt><trkpt lat="41.7315070175638" lon="1.2605611163595594"><ele>442.0</ele><time>2026-03-30T09:59:32Z</time></trkpt><trkpt lat="41.73148929627376" lon="1.2603657365544685"><ele>442.0</ele><time>2026-03-30T09:59:33Z</time></trkpt><trkpt lat="41.731483993295804" lon="1.2601793448559773"><ele>441.75</ele><time>2026-03-30T09:59:34Z</time></trkpt><trkpt lat="41.73148222523266" lon="1.2600040240421364"><ele>441.5</ele><time>2026-03-30T09:59:35Z</time></trkpt><trkpt lat="41.73148665547494" lon="1.259841432829676"><ele>441.25</ele><time>2026-03-30T09:59:36Z</time></trkpt><trkpt lat="41.731493260721514" lon="1.2596983683718581"><ele>441.0</ele><time>2026-03-30T09:59:37Z</time></trkpt><trkpt lat="41.731502562738115" lon="1.2595655991226544"><ele>440.75</ele><time>2026-03-30T09:59:38Z</time></trkpt><trkpt lat="41.731517142102945" lon="1.2594178209563112"><ele>440.5</ele><time>2026-03-30T09:59:39Z</time></trkpt><trkpt lat="41.73153253788084" lon="1.25924812267725"><ele>440.25</ele><time>2026-03-30T09:59:40Z</time></trkpt><trkpt lat="41.731546835588674" lon="1.2590615788424462"><ele>440.0</ele><time>2026-03-30T09:59:41Z</time></trkpt><trkpt lat="41.731562267081244" lon="1.2588693484167486"><ele>439.75</ele><time>2026-03-30T09:59:42Z</time></trkpt><trkpt lat="41.731579154437284" lon="1.258679945663303"><ele>439.5</ele><time>2026-03-30T09:59:43Z</time></trkpt><trkpt lat="41.73159245652587" lon="1.2584934047118894"><ele>439.25</ele><time>2026-03-30T09:59:44Z</time></trkpt><trkpt lat="41.731609397006665" lon="1.2582788266421223"><ele>439.0</ele><time>2026-03-30T09:59:45Z</time></trkpt><trkpt lat="41.73163036605995" lon="1.2580407925733794"><ele>438.33333333333337</ele><time>2026-03-30T09:59:46Z</time></trkpt><trkpt lat="41.73165120723246" lon="1.2577959567428987"><ele>437.66666666666663</ele><time>2026-03-30T09:59:47Z</time></trkpt><trkpt lat="41.73167076227062" lon="1.2575545269852293"><ele>437.0</ele><time>2026-03-30T09:59:48Z</time></trkpt><trkpt lat="41.73168817492346" lon="1.2573115147067864"><ele>436.66666666666663</ele><time>2026-03-30T09:59:49Z</time></trkpt><trkpt lat="41.73170785843998" lon="1.2570397739421553"><ele>436.33333333333337</ele><time>2026-03-30T09:59:50Z</time></trkpt><trkpt lat="41.731731434559194" lon="1.2567354860037485"><ele>436.0</ele><time>2026-03-30T09:59:51Z</time></trkpt><trkpt lat="41.731757989659165" lon="1.2564336727276657"><ele>436.0</ele><time>2026-03-30T09:59:52Z</time></trkpt><trkpt lat="41.731781357648046" lon="1.2561556137733825"><ele>436.0</ele><time>2026-03-30T09:59:53Z</time></trkpt><trkpt lat="41.73180607242757" lon="1.2558830546048025"><ele>436.0</ele><time>2026-03-30T09:59:54Z</time></trkpt><trkpt lat="41.73182813683601" lon="1.2556053888814505"><ele>436.0</ele><time>2026-03-30T09:59:55Z</time></trkpt><trkpt lat="41.731850009301304" lon="1.255316532516254"><ele>436.0</ele><time>2026-03-30T09:59:56Z</time></trkpt><trkpt lat="41.731872754168144" lon="1.2550222326437028"><ele>436.0</ele><time>2026-03-30T09:59:57Z</time></trkpt><trkpt lat="41.731890626086646" lon="1.254729514533784"><ele>436.6666666666667</ele><time>2026-03-30T09:59:58Z</time></trkpt><trkpt lat="41.7318965118321" lon="1.2544363530139824"><ele>437.33333333333337</ele><time>2026-03-30T09:59:59Z</time></trkpt><trkpt lat="41.7318953427182" lon="1.2541454410371002"><ele>438.0</ele><time>2026-03-30T10:00:00Z</time></trkpt><trkpt lat="41.73188855190232" lon="1.253863192385029"><ele>438.0</ele><time>2026-03-30T10:00:01Z</time></trkpt><trkpt lat="41.73187733450058" lon="1.2535843973979326"><ele>438.0</ele><time>2026-03-30T10:00:02Z</time></trkpt><trkpt lat="41.73186381983898" lon="1.2533091540067034"><ele>438.0</ele><time>2026-03-30T10:00:03Z</time></trkpt><trkpt lat="41.731848693714596" lon="1.2530421284957074"><ele>438.0</ele><time>2026-03-30T10:00:04Z</time></trkpt><trkpt lat="41.731832675313" lon="1.252778733966191"><ele>438.0</ele><time>2026-03-30T10:00:05Z</time></trkpt><trkpt lat="41.731822017430815" lon="1.2525127181535323"><ele>438.0</ele><time>2026-03-30T10:00:06Z</time></trkpt><trkpt lat="41.73183401876188" lon="1.2522606535845737"><ele>438.33333333333337</ele><time>2026-03-30T10:00:07Z</time></trkpt><trkpt lat="41.73186788005823" lon="1.2520245204868843"><ele>438.6666666666667</ele><time>2026-03-30T10:00:08Z</time></trkpt><trkpt lat="41.731919071031115" lon="1.2518035963268899"><ele>439.0</ele><time>2026-03-30T10:00:09Z</time></trkpt><trkpt lat="41.7319917027494" lon="1.2515847552040944"><ele>439.0</ele><time>2026-03-30T10:00:10Z</time></trkpt><trkpt lat="41.732071766638114" lon="1.2513581651150016"><ele>439.0</ele><time>2026-03-30T10:00:11Z</time></trkpt><trkpt lat="41.73215543430181" lon="1.2511295607445152"><ele>439.0</ele><time>2026-03-30T10:00:12Z</time></trkpt><trkpt lat="41.73223549626376" lon="1.2509126391173049"><ele>439.0</ele><time>2026-03-30T10:00:13Z</time></trkpt><trkpt lat="41.7323167825855" lon="1.250690301126446"><ele>439.0</ele><time>2026-03-30T10:00:14Z</time></trkpt><trkpt lat="41.732399544731" lon="1.2504625962949634"><ele>439.0</ele><time>2026-03-30T10:00:15Z</time></trkpt><trkpt lat="41.73248403966382" lon="1.2502295384696522"><ele>439.0</ele><time>2026-03-30T10:00:16Z</time></trkpt><trkpt lat="41.73256695325282" lon="1.2499979944160717"><ele>439.0</ele><time>2026-03-30T10:00:17Z</time></trkpt><trkpt lat="41.73265067903084" lon="1.2497685918862496"><ele>439.0</ele><time>2026-03-30T10:00:18Z</time></trkpt><trkpt lat="41.732732769008486" lon="1.2495423331036222"><ele>438.0</ele><time>2026-03-30T10:00:19Z</time></trkpt><trkpt lat="41.73281811642568" lon="1.2493171138299948"><ele>437.0</ele><time>2026-03-30T10:00:20Z</time></trkpt><trkpt lat="41.732912524286114" lon="1.2490968350565208"><ele>436.0</ele><time>2026-03-30T10:00:21Z</time></trkpt><trkpt lat="41.73302343944524" lon="1.2488877859361025"><ele>435.0</ele><time>2026-03-30T10:00:22Z</time></trkpt><trkpt lat="41.7331456143402" lon="1.2486890489959885"><ele>434.0</ele><time>2026-03-30T10:00:23Z</time></trkpt><trkpt lat="41.733282317447475" lon="1.2484978475493882"><ele>433.0</ele><time>2026-03-30T10:00:24Z</time></trkpt><trkpt lat="41.7334292716723" lon="1.2483078565068688"><ele>434.0</ele><time>2026-03-30T10:00:25Z</time></trkpt><trkpt lat="41.733592421029165" lon="1.2481256857192222"><ele>435.0</ele><time>2026-03-30T10:00:26Z</time></trkpt><trkpt lat="41.73377239065018" lon="1.2479476683095467"><ele>436.0</ele><time>2026-03-30T10:00:27Z</time></trkpt><trkpt lat="41.73395401853004" lon="1.2477790288288753"><ele>436.0</ele><time>2026-03-30T10:00:28Z</time></trkpt><trkpt lat="41.7341287387516" lon="1.2476190237345866"><ele>436.0</ele><time>2026-03-30T10:00:29Z</time></trkpt><trkpt lat="41.73429955592985" lon="1.2474604313954942"><ele>436.0</ele><time>2026-03-30T10:00:30Z</time></trkpt><trkpt lat="41.73446698254435" lon="1.2473063159688318"><ele>436.33333333333337</ele><time>2026-03-30T10:00:31Z</time></trkpt><trkpt lat="41.73463455503531" lon="1.2471546187606666"><ele>436.66666666666663</ele><time>2026-03-30T10:00:32Z</time></trkpt><trkpt lat="41.7348002006707" lon="1.2470109857342013"><ele>437.0</ele><time>2026-03-30T10:00:33Z</time></trkpt><trkpt lat="41.73496280387403" lon="1.2468726162395438"><ele>437.0</ele><time>2026-03-30T10:00:34Z</time></trkpt><trkpt lat="41.73511595998273" lon="1.2467429800777035"><ele>437.0</ele><time>2026-03-30T10:00:35Z</time></trkpt><trkpt lat="41.735263794106956" lon="1.246618389514411"><ele>437.0</ele><time>2026-03-30T10:00:36Z</time></trkpt><trkpt lat="41.735413826621404" lon="1.2464952460144922"><ele>436.0</ele><time>2026-03-30T10:00:37Z</time></trkpt><trkpt lat="41.735571879266416" lon="1.2463665104936992"><ele>435.0</ele><time>2026-03-30T10:00:38Z</time></trkpt><trkpt lat="41.73572219353135" lon="1.2462451259034675"><ele>434.0</ele><time>2026-03-30T10:00:39Z</time></trkpt><trkpt lat="41.73586941396859" lon="1.2461235306303466"><ele>434.0</ele><time>2026-03-30T10:00:40Z</time></trkpt><trkpt lat="41.736011080263644" lon="1.2460064352240903"><ele>434.0</ele><time>2026-03-30T10:00:41Z</time></trkpt><trkpt lat="41.736150275671434" lon="1.245897313806514"><ele>434.0</ele><time>2026-03-30T10:00:42Z</time></trkpt><trkpt lat="41.736284833621056" lon="1.2457891089463897"><ele>434.0</ele><time>2026-03-30T10:00:43Z</time></trkpt><trkpt lat="41.736409763501165" lon="1.2456878181095385"><ele>434.0</ele><time>2026-03-30T10:00:44Z</time></trkpt><trkpt lat="41.73652365232958" lon="1.2455918071977512"><ele>434.0</ele><time>2026-03-30T10:00:45Z</time></trkpt><trkpt lat="41.7366193020174" lon="1.2455119080290746"><ele>434.0</ele><time>2026-03-30T10:00:46Z</time></trkpt><trkpt lat="41.736686728248166" lon="1.245454805113934"><ele>434.0</ele><time>2026-03-30T10:00:47Z</time></trkpt><trkpt lat="41.736777152134856" lon="1.2453777126581356"><ele>434.0</ele><time>2026-03-30T10:00:48Z</time></trkpt><trkpt lat="41.73687607769549" lon="1.2453032548394303"><ele>434.0</ele><time>2026-03-30T10:00:49Z</time></trkpt><trkpt lat="41.73696175829991" lon="1.2452375759037744"><ele>434.0</ele><time>2026-03-30T10:00:50Z</time></trkpt><trkpt lat="41.73703725735145" lon="1.245173393468018"><ele>434.0</ele><time>2026-03-30T10:00:51Z</time></trkpt><trkpt lat="41.73711740621534" lon="1.2450997052310877"><ele>434.25</ele><time>2026-03-30T10:00:52Z</time></trkpt><trkpt lat="41.73721739622835" lon="1.2450150536827365"><ele>434.5</ele><time>2026-03-30T10:00:53Z</time></trkpt><trkpt lat="41.73732671044869" lon="1.244920479771122"><ele>434.75</ele><time>2026-03-30T10:00:54Z</time></trkpt><trkpt lat="41.73743392730522" lon="1.2448279603559746"><ele>435.0</ele><time>2026-03-30T10:00:55Z</time></trkpt><trkpt lat="41.73753161741922" lon="1.2447477748818996"><ele>435.0</ele><time>2026-03-30T10:00:56Z</time></trkpt><trkpt lat="41.73761923282255" lon="1.2446781000919087"><ele>435.0</ele><time>2026-03-30T10:00:57Z</time></trkpt><trkpt lat="41.73769841763752" lon="1.2446117477112286"><ele>435.0</ele><time>2026-03-30T10:00:58Z</time></trkpt><trkpt lat="41.73777576177989" lon="1.2445386573262642"><ele>435.0</ele><time>2026-03-30T10:00:59Z</time></trkpt><trkpt lat="41.73784664369546" lon="1.244465606517171"><ele>435.0</ele><time>2026-03-30T10:01:00Z</time></trkpt><trkpt lat="41.73794087717633" lon="1.2443731290810283"><ele>432.5</ele><time>2026-03-30T10:01:01Z</time></trkpt><trkpt lat="41.73804701130031" lon="1.2442799123596233"><ele>430.0</ele><time>2026-03-30T10:01:02Z</time></trkpt><trkpt lat="41.7381574423368" lon="1.244188640211161"><ele>427.5</ele><time>2026-03-30T10:01:03Z</time></trkpt><trkpt lat="41.738278014876904" lon="1.2440838122031685"><ele>425.0</ele><time>2026-03-30T10:01:04Z</time></trkpt><trkpt lat="41.73841494332089" lon="1.2439683820847975"><ele>424.0</ele><time>2026-03-30T10:01:05Z</time></trkpt><trkpt lat="41.73855694465697" lon="1.2438502634906559"><ele>423.0</ele><time>2026-03-30T10:01:06Z</time></trkpt><trkpt lat="41.73869920627149" lon="1.2437333645137647"><ele>422.0</ele><time>2026-03-30T10:01:07Z</time></trkpt><trkpt lat="41.73884255238604" lon="1.2436135485705941"><ele>422.0</ele><time>2026-03-30T10:01:08Z</time></trkpt><trkpt lat="41.73899729155359" lon="1.243484013403061"><ele>422.0</ele><time>2026-03-30T10:01:09Z</time></trkpt><trkpt lat="41.739166514047085" lon="1.2433474479781756"><ele>422.0</ele><time>2026-03-30T10:01:10Z</time></trkpt><trkpt lat="41.7393569729143" lon="1.2431904149825976"><ele>421.66666666666663</ele><time>2026-03-30T10:01:11Z</time></trkpt><trkpt lat="41.739550297553386" lon="1.2430280699935536"><ele>421.33333333333337</ele><time>2026-03-30T10:01:12Z</time></trkpt><trkpt lat="41.73973459969969" lon="1.242874729082806"><ele>421.0</ele><time>2026-03-30T10:01:13Z</time></trkpt><trkpt lat="41.73991835131842" lon="1.2427260878851907"><ele>421.0</ele><time>2026-03-30T10:01:14Z</time></trkpt><trkpt lat="41.74010326279884" lon="1.2425713764999797"><ele>421.0</ele><time>2026-03-30T10:01:15Z</time></trkpt><trkpt lat="41.74030121043626" lon="1.2424059259644917"><ele>420.0</ele><time>2026-03-30T10:01:16Z</time></trkpt><trkpt lat="41.74052595604557" lon="1.242223448019217"><ele>419.0</ele><time>2026-03-30T10:01:17Z</time></trkpt><trkpt lat="41.74073347355877" lon="1.2420513885566076"><ele>419.0</ele><time>2026-03-30T10:01:18Z</time></trkpt><trkpt lat="41.7409426541692" lon="1.2418743183382002"><ele>419.0</ele><time>2026-03-30T10:01:19Z</time></trkpt><trkpt lat="41.74116292360702" lon="1.241690915964817"><ele>417.5</ele><time>2026-03-30T10:01:20Z</time></trkpt><trkpt lat="41.741389730943574" lon="1.2415039631951508"><ele>416.0</ele><time>2026-03-30T10:01:21Z</time></trkpt><trkpt lat="41.74162814003854" lon="1.241307146929226"><ele>416.0</ele><time>2026-03-30T10:01:22Z</time></trkpt><trkpt lat="41.7418639261433" lon="1.241111054659965"><ele>416.0</ele><time>2026-03-30T10:01:23Z</time></trkpt><trkpt lat="41.74209538799592" lon="1.2409232409049678"><ele>416.0</ele><time>2026-03-30T10:01:24Z</time></trkpt><trkpt lat="41.74231427731697" lon="1.24073384563937"><ele>416.0</ele><time>2026-03-30T10:01:25Z</time></trkpt><trkpt lat="41.74253110155889" lon="1.2405526231153017"><ele>414.5</ele><time>2026-03-30T10:01:26Z</time></trkpt><trkpt lat="41.742743233242955" lon="1.2403786323841786"><ele>413.0</ele><time>2026-03-30T10:01:27Z</time></trkpt><trkpt lat="41.742947871499794" lon="1.240203364757401"><ele>413.0</ele><time>2026-03-30T10:01:28Z</time></trkpt><trkpt lat="41.74314908507923" lon="1.2400360207452086"><ele>413.0</ele><time>2026-03-30T10:01:29Z</time></trkpt><trkpt lat="41.74335118836486" lon="1.2398720235009704"><ele>413.5</ele><time>2026-03-30T10:01:30Z</time></trkpt><trkpt lat="41.74354992233777" lon="1.239707019133215"><ele>414.0</ele><time>2026-03-30T10:01:31Z</time></trkpt><trkpt lat="41.74374544389406" lon="1.239539748609607"><ele>414.0</ele><time>2026-03-30T10:01:32Z</time></trkpt><trkpt lat="41.74393796483018" lon="1.239381438249027"><ele>414.0</ele><time>2026-03-30T10:01:33Z</time></trkpt><trkpt lat="41.744131350714575" lon="1.2392244628390165"><ele>414.0</ele><time>2026-03-30T10:01:34Z</time></trkpt><trkpt lat="41.74433264396471" lon="1.239048735856346"><ele>414.0</ele><time>2026-03-30T10:01:35Z</time></trkpt><trkpt lat="41.74455316374571" lon="1.2388656175982977"><ele>414.5</ele><time>2026-03-30T10:01:36Z</time></trkpt><trkpt lat="41.74478661602819" lon="1.2386807530917565"><ele>415.0</ele><time>2026-03-30T10:01:37Z</time></trkpt><trkpt lat="41.74502055748152" lon="1.2384933792067714"><ele>415.5</ele><time>2026-03-30T10:01:38Z</time></trkpt><trkpt lat="41.745241988344766" lon="1.2383064898162621"><ele>416.0</ele><time>2026-03-30T10:01:39Z</time></trkpt><trkpt lat="41.74545906176665" lon="1.238129646086891"><ele>415.0</ele><time>2026-03-30T10:01:40Z</time></trkpt><trkpt lat="41.74567008771072" lon="1.2379546541704232"><ele>414.0</ele><time>2026-03-30T10:01:41Z</time></trkpt><trkpt lat="41.74587533474559" lon="1.2377788901605127"><ele>414.0</ele><time>2026-03-30T10:01:42Z</time></trkpt><trkpt lat="41.74607928860436" lon="1.237610149335924"><ele>414.0</ele><time>2026-03-30T10:01:43Z</time></trkpt><trkpt lat="41.746282919365164" lon="1.237440838690224"><ele>413.5</ele><time>2026-03-30T10:01:44Z</time></trkpt><trkpt lat="41.74648407496404" lon="1.2372734163349242"><ele>413.0</ele><time>2026-03-30T10:01:45Z</time></trkpt><trkpt lat="41.74668370950558" lon="1.237108394454374"><ele>412.66666666666663</ele><time>2026-03-30T10:01:46Z</time></trkpt><trkpt lat="41.74687950556159" lon="1.2369443867132686"><ele>412.33333333333337</ele><time>2026-03-30T10:01:47Z</time></trkpt><trkpt lat="41.7470638458988" lon="1.2367916525619005"><ele>412.0</ele><time>2026-03-30T10:01:48Z</time></trkpt><trkpt lat="41.74724092168761" lon="1.2366460411869291"><ele>412.0</ele><time>2026-03-30T10:01:49Z</time></trkpt><trkpt lat="41.74740930007481" lon="1.2365131330452064"><ele>412.0</ele><time>2026-03-30T10:01:50Z</time></trkpt><trkpt lat="41.74757066221879" lon="1.236387896998541"><ele>412.0</ele><time>2026-03-30T10:01:51Z</time></trkpt><trkpt lat="41.74772929258008" lon="1.236255596194435"><ele>412.6666666666667</ele><time>2026-03-30T10:01:52Z</time></trkpt><trkpt lat="41.747890981108206" lon="1.2361241868451296"><ele>413.33333333333337</ele><time>2026-03-30T10:01:53Z</time></trkpt><trkpt lat="41.74804713089738" lon="1.2359984266654906"><ele>414.0</ele><time>2026-03-30T10:01:54Z</time></trkpt><trkpt lat="41.74820122264668" lon="1.235868990849274"><ele>414.0</ele><time>2026-03-30T10:01:55Z</time></trkpt><trkpt lat="41.74835463311406" lon="1.2357395968760339"><ele>414.0</ele><time>2026-03-30T10:01:56Z</time></trkpt><trkpt lat="41.74850646162948" lon="1.2356139571587386"><ele>414.0</ele><time>2026-03-30T10:01:57Z</time></trkpt><trkpt lat="41.748661826963136" lon="1.2354867788285901"><ele>412.66666666666663</ele><time>2026-03-30T10:01:58Z</time></trkpt><trkpt lat="41.74881564931036" lon="1.2353594221844468"><ele>411.3333333333333</ele><time>2026-03-30T10:01:59Z</time></trkpt><trkpt lat="41.7489687261" lon="1.2352307799314004"><ele>410.0</ele><time>2026-03-30T10:02:00Z</time></trkpt><trkpt lat="41.74912232779704" lon="1.2351076481057988"><ele>410.0</ele><time>2026-03-30T10:02:01Z</time></trkpt><trkpt lat="41.74927766482199" lon="1.2349806429036592"><ele>410.0</ele><time>2026-03-30T10:02:02Z</time></trkpt><trkpt lat="41.749428977416905" lon="1.2348493500613793"><ele>410.0</ele><time>2026-03-30T10:02:03Z</time></trkpt><trkpt lat="41.749584614818474" lon="1.2347175685534717"><ele>409.66666666666663</ele><time>2026-03-30T10:02:04Z</time></trkpt><trkpt lat="41.74974015307284" lon="1.234588518328622"><ele>409.33333333333337</ele><time>2026-03-30T10:02:05Z</time></trkpt><trkpt lat="41.749898062067615" lon="1.2344571386044387"><ele>409.0</ele><time>2026-03-30T10:02:06Z</time></trkpt><trkpt lat="41.750053869570884" lon="1.2343273437419668"><ele>409.0</ele><time>2026-03-30T10:02:07Z</time></trkpt><trkpt lat="41.750203999992095" lon="1.2342127945133423"><ele>409.0</ele><time>2026-03-30T10:02:08Z</time></trkpt><trkpt lat="41.750347927252605" lon="1.2341057377766953"><ele>409.0</ele><time>2026-03-30T10:02:09Z</time></trkpt><trkpt lat="41.750483116328574" lon="1.2339881485604938"><ele>411.6666666666667</ele><time>2026-03-30T10:02:10Z</time></trkpt><trkpt lat="41.750600043298476" lon="1.233843182378105"><ele>414.33333333333337</ele><time>2026-03-30T10:02:11Z</time></trkpt><trkpt lat="41.75071926154323" lon="1.2337486600403487"><ele>417.0</ele><time>2026-03-30T10:02:12Z</time></trkpt><trkpt lat="41.75073702896921" lon="1.233486965641811"><ele>417.0</ele><time>2026-03-30T10:02:13Z</time></trkpt><trkpt lat="41.75075532340035" lon="1.2332768314834608"><ele>417.0</ele><time>2026-03-30T10:02:14Z</time></trkpt><trkpt lat="41.75074668385871" lon="1.233050430580935"><ele>417.0</ele><time>2026-03-30T10:02:15Z</time></trkpt><trkpt lat="41.75070947932124" lon="1.2327951400313006"><ele>416.33333333333337</ele><time>2026-03-30T10:02:16Z</time></trkpt><trkpt lat="41.75067427363829" lon="1.2325322659480875"><ele>415.6666666666667</ele><time>2026-03-30T10:02:17Z</time></trkpt><trkpt lat="41.75064701633209" lon="1.2322923179542042"><ele>415.0</ele><time>2026-03-30T10:02:18Z</time></trkpt><trkpt lat="41.75061939144726" lon="1.2320601241537463"><ele>414.6666666666667</ele><time>2026-03-30T10:02:19Z</time></trkpt><trkpt lat="41.750575143979106" lon="1.2318372917909615"><ele>414.33333333333337</ele><time>2026-03-30T10:02:20Z</time></trkpt><trkpt lat="41.75048376464442" lon="1.231648685321977"><ele>414.0</ele><time>2026-03-30T10:02:21Z</time></trkpt><trkpt lat="41.75037274135543" lon="1.231481114466083"><ele>414.4</ele><time>2026-03-30T10:02:22Z</time></trkpt><trkpt lat="41.750268144948166" lon="1.231338573855343"><ele>414.79999999999995</ele><time>2026-03-30T10:02:23Z</time></trkpt><trkpt lat="41.75018651041638" lon="1.2312067175936794"><ele>415.20000000000005</ele><time>2026-03-30T10:02:24Z</time></trkpt><trkpt lat="41.750137336929654" lon="1.2310930522084245"><ele>415.6</ele><time>2026-03-30T10:02:25Z</time></trkpt><trkpt lat="41.75012588063826" lon="1.2309987865016456"><ele>416.0</ele><time>2026-03-30T10:02:26Z</time></trkpt><trkpt lat="41.7501640340573" lon="1.2308920973960513"><ele>416.0</ele><time>2026-03-30T10:02:28Z</time></trkpt><trkpt lat="41.75021839123363" lon="1.23082863481539"><ele>416.0</ele><time>2026-03-30T10:02:30Z</time></trkpt><trkpt lat="41.75030836414158" lon="1.2307552727288367"><ele>416.0</ele><time>2026-03-30T10:02:32Z</time></trkpt><trkpt lat="41.750376592374636" lon="1.2306670316402728"><ele>416.0</ele><time>2026-03-30T10:02:34Z</time></trkpt><trkpt lat="41.7503985795268" lon="1.2305093424450089"><ele>416.0</ele><time>2026-03-30T10:02:36Z</time></trkpt><trkpt lat="41.75040097738953" lon="1.2303945203469755"><ele>415.75</ele><time>2026-03-30T10:02:37Z</time></trkpt><trkpt lat="41.75041158985751" lon="1.230258661714223"><ele>415.5</ele><time>2026-03-30T10:02:38Z</time></trkpt><trkpt lat="41.75044544028193" lon="1.2300993104289657"><ele>415.25</ele><time>2026-03-30T10:02:39Z</time></trkpt><trkpt lat="41.75049464650261" lon="1.2299297026113365"><ele>415.0</ele><time>2026-03-30T10:02:40Z</time></trkpt><trkpt lat="41.75053589310528" lon="1.229763932713712"><ele>414.0</ele><time>2026-03-30T10:02:41Z</time></trkpt><trkpt lat="41.7505656802908" lon="1.2295633296473902"><ele>413.0</ele><time>2026-03-30T10:02:42Z</time></trkpt><trkpt lat="41.75059859947152" lon="1.2293379752309679"><ele>412.0</ele><time>2026-03-30T10:02:43Z</time></trkpt><trkpt lat="41.75063690858845" lon="1.229124246158546"><ele>411.6666666666667</ele><time>2026-03-30T10:02:44Z</time></trkpt><trkpt lat="41.7506762161465" lon="1.2289147791401467"><ele>411.33333333333337</ele><time>2026-03-30T10:02:45Z</time></trkpt><trkpt lat="41.75071921283368" lon="1.228708353837977"><ele>411.0</ele><time>2026-03-30T10:02:46Z</time></trkpt><trkpt lat="41.75076859782321" lon="1.2285018418819376"><ele>411.0</ele><time>2026-03-30T10:02:47Z</time></trkpt><trkpt lat="41.750831204169735" lon="1.2282945617771184"><ele>411.0</ele><time>2026-03-30T10:02:48Z</time></trkpt><trkpt lat="41.75091307350984" lon="1.2280717492887125"><ele>411.0</ele><time>2026-03-30T10:02:49Z</time></trkpt><trkpt lat="41.75101301778694" lon="1.227816726394199"><ele>411.0</ele><time>2026-03-30T10:02:50Z</time></trkpt><trkpt lat="41.751119218127954" lon="1.2275663921649973"><ele>411.0</ele><time>2026-03-30T10:02:51Z</time></trkpt><trkpt lat="41.751219732347536" lon="1.2273397736491805"><ele>411.0</ele><time>2026-03-30T10:02:52Z</time></trkpt><trkpt lat="41.751317532608205" lon="1.227114908414083"><ele>411.0</ele><time>2026-03-30T10:02:53Z</time></trkpt><trkpt lat="41.751412595402535" lon="1.2268908340843925"><ele>411.0</ele><time>2026-03-30T10:02:54Z</time></trkpt><trkpt lat="41.75151017824877" lon="1.2266616736417615"><ele>411.0</ele><time>2026-03-30T10:02:55Z</time></trkpt><trkpt lat="41.751609299374195" lon="1.226427737254867"><ele>410.33333333333337</ele><time>2026-03-30T10:02:56Z</time></trkpt><trkpt lat="41.751709744282" lon="1.2261861819568003"><ele>409.6666666666667</ele><time>2026-03-30T10:02:57Z</time></trkpt><trkpt lat="41.75181871403624" lon="1.225921388804442"><ele>409.0</ele><time>2026-03-30T10:02:58Z</time></trkpt><trkpt lat="41.75193408285642" lon="1.22565171683129"><ele>407.5</ele><time>2026-03-30T10:02:59Z</time></trkpt><trkpt lat="41.752048262221464" lon="1.2253867958480809"><ele>406.0</ele><time>2026-03-30T10:03:00Z</time></trkpt><trkpt lat="41.752159039192875" lon="1.2251206374424797"><ele>406.0</ele><time>2026-03-30T10:03:01Z</time></trkpt><trkpt lat="41.75227077741886" lon="1.2248559432658188"><ele>406.0</ele><time>2026-03-30T10:03:02Z</time></trkpt><trkpt lat="41.75238443645803" lon="1.2245910621495533"><ele>407.5</ele><time>2026-03-30T10:03:03Z</time></trkpt><trkpt lat="41.75249516688202" lon="1.2243248379973672"><ele>409.0</ele><time>2026-03-30T10:03:04Z</time></trkpt><trkpt lat="41.752606348782535" lon="1.224061048231306"><ele>407.5</ele><time>2026-03-30T10:03:05Z</time></trkpt><trkpt lat="41.75272341647182" lon="1.223787519918018"><ele>406.0</ele><time>2026-03-30T10:03:06Z</time></trkpt><trkpt lat="41.75284055813936" lon="1.2235171442746549"><ele>406.0</ele><time>2026-03-30T10:03:07Z</time></trkpt><trkpt lat="41.752955110899435" lon="1.2232503715724377"><ele>406.0</ele><time>2026-03-30T10:03:08Z</time></trkpt><trkpt lat="41.75306561257522" lon="1.2229838663356423"><ele>406.6666666666667</ele><time>2026-03-30T10:03:09Z</time></trkpt><trkpt lat="41.75317399951695" lon="1.2227194223028803"><ele>407.33333333333337</ele><time>2026-03-30T10:03:10Z</time></trkpt><trkpt lat="41.753282094115235" lon="1.2224596585133953"><ele>408.0</ele><time>2026-03-30T10:03:11Z</time></trkpt><trkpt lat="41.75338992315143" lon="1.2222053507625104"><ele>408.0</ele><time>2026-03-30T10:03:12Z</time></trkpt><trkpt lat="41.75349656104235" lon="1.221951391569071"><ele>408.0</ele><time>2026-03-30T10:03:13Z</time></trkpt><trkpt lat="41.75360562601054" lon="1.2216955427052782"><ele>408.0</ele><time>2026-03-30T10:03:14Z</time></trkpt><trkpt lat="41.753717123979314" lon="1.22143170910042"><ele>406.5</ele><time>2026-03-30T10:03:15Z</time></trkpt><trkpt lat="41.75383097829499" lon="1.2211556101841317"><ele>405.0</ele><time>2026-03-30T10:03:16Z</time></trkpt><trkpt lat="41.75394470008278" lon="1.2208850276574812"><ele>404.0</ele><time>2026-03-30T10:03:17Z</time></trkpt><trkpt lat="41.754062513983534" lon="1.2206117729788986"><ele>403.0</ele><time>2026-03-30T10:03:18Z</time></trkpt><trkpt lat="41.754182403737516" lon="1.220337314565053"><ele>403.0</ele><time>2026-03-30T10:03:19Z</time></trkpt><trkpt lat="41.75429833129578" lon="1.22006655137262"><ele>403.0</ele><time>2026-03-30T10:03:20Z</time></trkpt><trkpt lat="41.75441209664958" lon="1.2197978126585707"><ele>400.5</ele><time>2026-03-30T10:03:21Z</time></trkpt><trkpt lat="41.75452341899062" lon="1.2195270710970028"><ele>398.0</ele><time>2026-03-30T10:03:22Z</time></trkpt><trkpt lat="41.75463552706211" lon="1.219254636414429"><ele>397.5</ele><time>2026-03-30T10:03:23Z</time></trkpt><trkpt lat="41.75475253840925" lon="1.2189792548214735"><ele>397.0</ele><time>2026-03-30T10:03:24Z</time></trkpt><trkpt lat="41.754873446013136" lon="1.2187008569024347"><ele>397.0</ele><time>2026-03-30T10:03:25Z</time></trkpt><trkpt lat="41.754993665501615" lon="1.2184211335530173"><ele>397.0</ele><time>2026-03-30T10:03:26Z</time></trkpt><trkpt lat="41.75511018504865" lon="1.2181430966048192"><ele>397.5</ele><time>2026-03-30T10:03:27Z</time></trkpt><trkpt lat="41.75522145654043" lon="1.2178741287130732"><ele>398.0</ele><time>2026-03-30T10:03:28Z</time></trkpt><trkpt lat="41.755332605405535" lon="1.2176049055935807"><ele>398.0</ele><time>2026-03-30T10:03:29Z</time></trkpt><trkpt lat="41.755444984531465" lon="1.217344741496442"><ele>398.0</ele><time>2026-03-30T10:03:30Z</time></trkpt><trkpt lat="41.75555585455958" lon="1.2170872633292804"><ele>398.0</ele><time>2026-03-30T10:03:31Z</time></trkpt><trkpt lat="41.755661939099966" lon="1.216837805475353"><ele>398.0</ele><time>2026-03-30T10:03:32Z</time></trkpt><trkpt lat="41.75576757642361" lon="1.2165870454576935"><ele>398.0</ele><time>2026-03-30T10:03:33Z</time></trkpt><trkpt lat="41.75588811184299" lon="1.2163516740799762"><ele>398.0</ele><time>2026-03-30T10:03:34Z</time></trkpt><trkpt lat="41.75605432628057" lon="1.2161462982692643"><ele>397.5</ele><time>2026-03-30T10:03:35Z</time></trkpt><trkpt lat="41.756259130113065" lon="1.215982638536458"><ele>397.0</ele><time>2026-03-30T10:03:36Z</time></trkpt><trkpt lat="41.7564690484819" lon="1.2158577306176404"><ele>397.0</ele><time>2026-03-30T10:03:37Z</time></trkpt><trkpt lat="41.75667799392425" lon="1.2157570949969254"><ele>397.0</ele><time>2026-03-30T10:03:38Z</time></trkpt><trkpt lat="41.75687743381841" lon="1.21564161146665"><ele>397.0</ele><time>2026-03-30T10:03:39Z</time></trkpt><trkpt lat="41.75706704972675" lon="1.2155252807765453"><ele>396.33333333333337</ele><time>2026-03-30T10:03:40Z</time></trkpt><trkpt lat="41.75725007513047" lon="1.215410187294212"><ele>395.66666666666663</ele><time>2026-03-30T10:03:41Z</time></trkpt><trkpt lat="41.75743253117982" lon="1.2152888202097698"><ele>395.0</ele><time>2026-03-30T10:03:42Z</time></trkpt><trkpt lat="41.757615383501886" lon="1.2151583744813903"><ele>395.3333333333333</ele><time>2026-03-30T10:03:43Z</time></trkpt><trkpt lat="41.75778125629164" lon="1.2149948964356192"><ele>395.66666666666663</ele><time>2026-03-30T10:03:44Z</time></trkpt><trkpt lat="41.75791161412919" lon="1.2147788803663018"><ele>396.0</ele><time>2026-03-30T10:03:45Z</time></trkpt><trkpt lat="41.75801188127206" lon="1.2145415211302073"><ele>396.0</ele><time>2026-03-30T10:03:46Z</time></trkpt><trkpt lat="41.75810473893416" lon="1.2142786425341803"><ele>396.0</ele><time>2026-03-30T10:03:47Z</time></trkpt><trkpt lat="41.75819560043158" lon="1.2140039674875218"><ele>396.0</ele><time>2026-03-30T10:03:48Z</time></trkpt><trkpt lat="41.75828759622401" lon="1.213737300064589"><ele>395.66666666666663</ele><time>2026-03-30T10:03:49Z</time></trkpt><trkpt lat="41.75838285654945" lon="1.213476013591422"><ele>395.3333333333333</ele><time>2026-03-30T10:03:50Z</time></trkpt><trkpt lat="41.7584782268713" lon="1.213216381070986"><ele>395.0</ele><time>2026-03-30T10:03:51Z</time></trkpt><trkpt lat="41.758569919719456" lon="1.2129433821922828"><ele>398.0</ele><time>2026-03-30T10:03:52Z</time></trkpt><trkpt lat="41.7586541972303" lon="1.2126554646802596"><ele>401.0</ele><time>2026-03-30T10:03:53Z</time></trkpt><trkpt lat="41.758709134651106" lon="1.2123530648445113"><ele>401.5</ele><time>2026-03-30T10:03:54Z</time></trkpt><trkpt lat="41.758737197950325" lon="1.2120477289196996"><ele>402.0</ele><time>2026-03-30T10:03:55Z</time></trkpt><trkpt lat="41.758738839436646" lon="1.2117321645036654"><ele>402.5</ele><time>2026-03-30T10:03:56Z</time></trkpt><trkpt lat="41.758716713159984" lon="1.2114164829979517"><ele>403.0</ele><time>2026-03-30T10:03:57Z</time></trkpt><trkpt lat="41.758691239739655" lon="1.2111057368961216"><ele>403.0</ele><time>2026-03-30T10:03:58Z</time></trkpt><trkpt lat="41.75867071678098" lon="1.210800408580662"><ele>403.0</ele><time>2026-03-30T10:03:59Z</time></trkpt><trkpt lat="41.7586538232297" lon="1.2104914054414735"><ele>400.0</ele><time>2026-03-30T10:04:00Z</time></trkpt><trkpt lat="41.75864064038587" lon="1.2101896946759387"><ele>397.0</ele><time>2026-03-30T10:04:01Z</time></trkpt><trkpt lat="41.758647908574574" lon="1.2098859933089388"><ele>394.5</ele><time>2026-03-30T10:04:02Z</time></trkpt><trkpt lat="41.758691510927534" lon="1.2095878865042877"><ele>392.0</ele><time>2026-03-30T10:04:03Z</time></trkpt><trkpt lat="41.75874104816436" lon="1.2092859208282856"><ele>392.0</ele><time>2026-03-30T10:04:04Z</time></trkpt><trkpt lat="41.75879041282296" lon="1.2089818082400166"><ele>392.0</ele><time>2026-03-30T10:04:05Z</time></trkpt><trkpt lat="41.75884234041669" lon="1.2086800486981122"><ele>392.0</ele><time>2026-03-30T10:04:06Z</time></trkpt><trkpt lat="41.758891393818104" lon="1.2083810918526816"><ele>392.0</ele><time>2026-03-30T10:04:07Z</time></trkpt><trkpt lat="41.75893650309268" lon="1.2080835753368349"><ele>393.0</ele><time>2026-03-30T10:04:08Z</time></trkpt><trkpt lat="41.7589766539801" lon="1.2077862789598048"><ele>394.0</ele><time>2026-03-30T10:04:09Z</time></trkpt><trkpt lat="41.759008218546924" lon="1.2074828933713435"><ele>394.0</ele><time>2026-03-30T10:04:10Z</time></trkpt><trkpt lat="41.75903679554615" lon="1.20718492965891"><ele>394.0</ele><time>2026-03-30T10:04:11Z</time></trkpt><trkpt lat="41.75906109881742" lon="1.20688547872667"><ele>394.0</ele><time>2026-03-30T10:04:12Z</time></trkpt><trkpt lat="41.75908611669426" lon="1.206592928542564"><ele>393.6666666666667</ele><time>2026-03-30T10:04:13Z</time></trkpt><trkpt lat="41.759110370923935" lon="1.2063001839951917"><ele>393.33333333333337</ele><time>2026-03-30T10:04:14Z</time></trkpt><trkpt lat="41.75913536377774" lon="1.205997643428544"><ele>393.0</ele><time>2026-03-30T10:04:15Z</time></trkpt><trkpt lat="41.75916008571067" lon="1.205693229513555"><ele>392.66666666666663</ele><time>2026-03-30T10:04:16Z</time></trkpt><trkpt lat="41.75918555992922" lon="1.205397409525935"><ele>392.3333333333333</ele><time>2026-03-30T10:04:17Z</time></trkpt><trkpt lat="41.75921069577289" lon="1.2050991650464533"><ele>392.0</ele><time>2026-03-30T10:04:18Z</time></trkpt><trkpt lat="41.75923906341741" lon="1.2047981420018314"><ele>392.0</ele><time>2026-03-30T10:04:19Z</time></trkpt><trkpt lat="41.75927116370079" lon="1.2044897149596887"><ele>392.0</ele><time>2026-03-30T10:04:20Z</time></trkpt><trkpt lat="41.75930718850148" lon="1.2041724655747854"><ele>391.5</ele><time>2026-03-30T10:04:21Z</time></trkpt><trkpt lat="41.75934666645019" lon="1.2038548776434552"><ele>391.0</ele><time>2026-03-30T10:04:22Z</time></trkpt><trkpt lat="41.75933901694311" lon="1.2035545929149882"><ele>391.0</ele><time>2026-03-30T10:04:23Z</time></trkpt><trkpt lat="41.75936287274659" lon="1.2032438143868551"><ele>391.0</ele><time>2026-03-30T10:04:24Z</time></trkpt><trkpt lat="41.75939136287636" lon="1.202931271618745"><ele>391.0</ele><time>2026-03-30T10:04:25Z</time></trkpt><trkpt lat="41.759421851008454" lon="1.2026153805900046"><ele>391.0</ele><time>2026-03-30T10:04:26Z</time></trkpt><trkpt lat="41.759447705426815" lon="1.2022981167706739"><ele>391.0</ele><time>2026-03-30T10:04:27Z</time></trkpt><trkpt lat="41.75947347153019" lon="1.2019844793657535"><ele>391.0</ele><time>2026-03-30T10:04:28Z</time></trkpt><trkpt lat="41.75949886565591" lon="1.2016775954309895"><ele>391.0</ele><time>2026-03-30T10:04:29Z</time></trkpt><trkpt lat="41.75952514417908" lon="1.2013734787165526"><ele>391.0</ele><time>2026-03-30T10:04:30Z</time></trkpt><trkpt lat="41.75955111247901" lon="1.2010699674782197"><ele>391.0</ele><time>2026-03-30T10:04:31Z</time></trkpt><trkpt lat="41.75957780664168" lon="1.2007670923461673"><ele>391.0</ele><time>2026-03-30T10:04:32Z</time></trkpt><trkpt lat="41.75960095331733" lon="1.2004913559764638"><ele>391.0</ele><time>2026-03-30T10:04:33Z</time></trkpt><trkpt lat="41.7596265952702" lon="1.2002076987894257"><ele>391.0</ele><time>2026-03-30T10:04:34Z</time></trkpt><trkpt lat="41.759649787300845" lon="1.199928206437916"><ele>391.0</ele><time>2026-03-30T10:04:35Z</time></trkpt><trkpt lat="41.75967020857336" lon="1.1996575025791802"><ele>391.0</ele><time>2026-03-30T10:04:36Z</time></trkpt><trkpt lat="41.759683884752334" lon="1.1994115969722488"><ele>391.0</ele><time>2026-03-30T10:04:37Z</time></trkpt><trkpt lat="41.75971372128462" lon="1.1991662616559686"><ele>391.0</ele><time>2026-03-30T10:04:38Z</time></trkpt><trkpt lat="41.759735790710224" lon="1.198903732746196"><ele>391.0</ele><time>2026-03-30T10:04:39Z</time></trkpt><trkpt lat="41.75975269416506" lon="1.1986652178428971"><ele>391.0</ele><time>2026-03-30T10:04:40Z</time></trkpt><trkpt lat="41.75975291768149" lon="1.198422552312309"><ele>391.0</ele><time>2026-03-30T10:04:41Z</time></trkpt><trkpt lat="41.75972584375035" lon="1.1981932421182082"><ele>391.0</ele><time>2026-03-30T10:04:42Z</time></trkpt><trkpt lat="41.75967897246425" lon="1.1979654502102342"><ele>391.6666666666667</ele><time>2026-03-30T10:04:43Z</time></trkpt><trkpt lat="41.759610653226325" lon="1.1977484044448719"><ele>392.33333333333337</ele><time>2026-03-30T10:04:44Z</time></trkpt><trkpt lat="41.759523886310824" lon="1.1975339686271982"><ele>393.0</ele><time>2026-03-30T10:04:45Z</time></trkpt><trkpt lat="41.75940938378906" lon="1.197341609994427"><ele>392.33333333333337</ele><time>2026-03-30T10:04:46Z</time></trkpt><trkpt lat="41.75927447929256" lon="1.1971585398731688"><ele>391.6666666666667</ele><time>2026-03-30T10:04:47Z</time></trkpt><trkpt lat="41.75911846657957" lon="1.1970001874946363"><ele>391.0</ele><time>2026-03-30T10:04:48Z</time></trkpt><trkpt lat="41.758936662379924" lon="1.1968369452196665"><ele>391.0</ele><time>2026-03-30T10:04:49Z</time></trkpt><trkpt lat="41.75875420056428" lon="1.1966657260558016"><ele>391.0</ele><time>2026-03-30T10:04:50Z</time></trkpt><trkpt lat="41.75857126991239" lon="1.1964905839782807"><ele>391.0</ele><time>2026-03-30T10:04:51Z</time></trkpt><trkpt lat="41.75837752260138" lon="1.1963070273308833"><ele>387.5</ele><time>2026-03-30T10:04:52Z</time></trkpt><trkpt lat="41.75818121476523" lon="1.1961200509683727"><ele>384.0</ele><time>2026-03-30T10:04:53Z</time></trkpt><trkpt lat="41.75797308704471" lon="1.1959263044004362"><ele>384.0</ele><time>2026-03-30T10:04:54Z</time></trkpt><trkpt lat="41.757755715458266" lon="1.1957204613325705"><ele>384.0</ele><time>2026-03-30T10:04:55Z</time></trkpt><trkpt lat="41.757529268056906" lon="1.195502694096907"><ele>383.5</ele><time>2026-03-30T10:04:56Z</time></trkpt><trkpt lat="41.75730686283367" lon="1.1952930250441853"><ele>383.0</ele><time>2026-03-30T10:04:57Z</time></trkpt><trkpt lat="41.75709701647605" lon="1.1950990724112656"><ele>383.0</ele><time>2026-03-30T10:04:58Z</time></trkpt><trkpt lat="41.75689149441517" lon="1.1949008355058213"><ele>383.0</ele><time>2026-03-30T10:04:59Z</time></trkpt><trkpt lat="41.75668739911196" lon="1.1947075243005767"><ele>383.5</ele><time>2026-03-30T10:05:00Z</time></trkpt><trkpt lat="41.75648113194629" lon="1.19451016952992"><ele>384.0</ele><time>2026-03-30T10:05:01Z</time></trkpt><trkpt lat="41.75627117049905" lon="1.1943140925918834"><ele>384.0</ele><time>2026-03-30T10:05:02Z</time></trkpt><trkpt lat="41.75606069649004" lon="1.194121764188083"><ele>384.0</ele><time>2026-03-30T10:05:03Z</time></trkpt><trkpt lat="41.75584436080556" lon="1.1939192948495987"><ele>383.0</ele><time>2026-03-30T10:05:04Z</time></trkpt><trkpt lat="41.755631473086595" lon="1.1937135139233177"><ele>382.0</ele><time>2026-03-30T10:05:05Z</time></trkpt><trkpt lat="41.75541831724046" lon="1.1935141093670993"><ele>382.0</ele><time>2026-03-30T10:05:06Z</time></trkpt><trkpt lat="41.755204617529586" lon="1.193314581031054"><ele>382.0</ele><time>2026-03-30T10:05:07Z</time></trkpt><trkpt lat="41.754991459327755" lon="1.1931127126747916"><ele>382.5</ele><time>2026-03-30T10:05:08Z</time></trkpt><trkpt lat="41.75477939289767" lon="1.1929111792739109"><ele>383.0</ele><time>2026-03-30T10:05:09Z</time></trkpt><trkpt lat="41.75457016226748" lon="1.1927137470698952"><ele>383.0</ele><time>2026-03-30T10:05:10Z</time></trkpt><trkpt lat="41.75435505199432" lon="1.1925129361644506"><ele>383.0</ele><time>2026-03-30T10:05:11Z</time></trkpt><trkpt lat="41.7541404393009" lon="1.192310585999652"><ele>382.0</ele><time>2026-03-30T10:05:12Z</time></trkpt><trkpt lat="41.75392274547141" lon="1.192103275433447"><ele>381.0</ele><time>2026-03-30T10:05:13Z</time></trkpt><trkpt lat="41.75370561169803" lon="1.1918940378630947"><ele>380.5</ele><time>2026-03-30T10:05:14Z</time></trkpt><trkpt lat="41.75348820968329" lon="1.1916853388987074"><ele>380.0</ele><time>2026-03-30T10:05:15Z</time></trkpt><trkpt lat="41.75326211928715" lon="1.1914735161052814"><ele>380.0</ele><time>2026-03-30T10:05:16Z</time></trkpt><trkpt lat="41.75302712900082" lon="1.1912557605902456"><ele>380.0</ele><time>2026-03-30T10:05:17Z</time></trkpt><trkpt lat="41.75280940055036" lon="1.191048962193786"><ele>380.5</ele><time>2026-03-30T10:05:18Z</time></trkpt><trkpt lat="41.752594977138195" lon="1.1908455031821517"><ele>381.0</ele><time>2026-03-30T10:05:19Z</time></trkpt><trkpt lat="41.752386182319114" lon="1.190649038322003"><ele>381.0</ele><time>2026-03-30T10:05:20Z</time></trkpt><trkpt lat="41.7521762468336" lon="1.1904529746625458"><ele>381.0</ele><time>2026-03-30T10:05:21Z</time></trkpt><trkpt lat="41.751966592191856" lon="1.1902566942767607"><ele>382.0</ele><time>2026-03-30T10:05:22Z</time></trkpt><trkpt lat="41.75175588589294" lon="1.1900624609990085"><ele>383.0</ele><time>2026-03-30T10:05:23Z</time></trkpt><trkpt lat="41.751549160021895" lon="1.1898688736468586"><ele>383.5</ele><time>2026-03-30T10:05:24Z</time></trkpt><trkpt lat="41.75134355749115" lon="1.1896721230161824"><ele>384.0</ele><time>2026-03-30T10:05:25Z</time></trkpt><trkpt lat="41.751139346241935" lon="1.1894741183833148"><ele>384.5</ele><time>2026-03-30T10:05:26Z</time></trkpt><trkpt lat="41.75093416271609" lon="1.1892814678650099"><ele>385.0</ele><time>2026-03-30T10:05:27Z</time></trkpt><trkpt lat="41.75072874884849" lon="1.1890909365421527"><ele>385.0</ele><time>2026-03-30T10:05:28Z</time></trkpt><trkpt lat="41.750525947031555" lon="1.1889016867506552"><ele>385.0</ele><time>2026-03-30T10:05:29Z</time></trkpt><trkpt lat="41.75032762597046" lon="1.1887147803934235"><ele>386.5</ele><time>2026-03-30T10:05:30Z</time></trkpt><trkpt lat="41.75013152807783" lon="1.1885246096301336"><ele>388.0</ele><time>2026-03-30T10:05:31Z</time></trkpt><trkpt lat="41.74993771030517" lon="1.188334930445704"><ele>389.0</ele><time>2026-03-30T10:05:32Z</time></trkpt><trkpt lat="41.749744517031274" lon="1.1881469346037645"><ele>390.0</ele><time>2026-03-30T10:05:33Z</time></trkpt><trkpt lat="41.74956164675801" lon="1.187947600798555"><ele>390.0</ele><time>2026-03-30T10:05:34Z</time></trkpt><trkpt lat="41.74939724458816" lon="1.187729661698932"><ele>390.0</ele><time>2026-03-30T10:05:35Z</time></trkpt><trkpt lat="41.749234850279976" lon="1.1874867457275053"><ele>390.66666666666663</ele><time>2026-03-30T10:05:36Z</time></trkpt><trkpt lat="41.749092235203285" lon="1.1872446462798734"><ele>391.3333333333333</ele><time>2026-03-30T10:05:37Z</time></trkpt><trkpt lat="41.74895331707221" lon="1.187021585306482"><ele>392.0</ele><time>2026-03-30T10:05:38Z</time></trkpt><trkpt lat="41.748809333332936" lon="1.1868055861944973"><ele>392.0</ele><time>2026-03-30T10:05:39Z</time></trkpt><trkpt lat="41.748669300347146" lon="1.1865872058392921"><ele>392.0</ele><time>2026-03-30T10:05:40Z</time></trkpt><trkpt lat="41.74852762515437" lon="1.1863678357944631"><ele>392.0</ele><time>2026-03-30T10:05:41Z</time></trkpt><trkpt lat="41.748380786382306" lon="1.1861417606229456"><ele>392.3333333333333</ele><time>2026-03-30T10:05:42Z</time></trkpt><trkpt lat="41.74823726412965" lon="1.1859161802704046"><ele>392.66666666666663</ele><time>2026-03-30T10:05:43Z</time></trkpt><trkpt lat="41.748094101833416" lon="1.1856908590357886"><ele>393.0</ele><time>2026-03-30T10:05:44Z</time></trkpt><trkpt lat="41.74794998120798" lon="1.1854621097680182"><ele>393.0</ele><time>2026-03-30T10:05:45Z</time></trkpt><trkpt lat="41.74779708259004" lon="1.185225739950115"><ele>393.0</ele><time>2026-03-30T10:05:46Z</time></trkpt><trkpt lat="41.747643697792334" lon="1.1849883883426746"><ele>391.5</ele><time>2026-03-30T10:05:47Z</time></trkpt><trkpt lat="41.747488874212316" lon="1.1847477449918424"><ele>390.0</ele><time>2026-03-30T10:05:48Z</time></trkpt><trkpt lat="41.74733255242039" lon="1.1845032403316798"><ele>390.0</ele><time>2026-03-30T10:05:49Z</time></trkpt><trkpt lat="41.74717937307306" lon="1.1842617778450082"><ele>390.0</ele><time>2026-03-30T10:05:50Z</time></trkpt><trkpt lat="41.74703019698023" lon="1.1840262966109356"><ele>391.0</ele><time>2026-03-30T10:05:51Z</time></trkpt><trkpt lat="41.74688145006686" lon="1.1837904177894638"><ele>392.0</ele><time>2026-03-30T10:05:52Z</time></trkpt><trkpt lat="41.74673140959695" lon="1.1835573411717206"><ele>390.3333333333333</ele><time>2026-03-30T10:05:53Z</time></trkpt><trkpt lat="41.74658303535871" lon="1.1833245834235628"><ele>388.66666666666663</ele><time>2026-03-30T10:05:54Z</time></trkpt><trkpt lat="41.74644072228683" lon="1.1831025395314554"><ele>387.0</ele><time>2026-03-30T10:05:55Z</time></trkpt><trkpt lat="41.74629920804125" lon="1.1828806060357144"><ele>387.0</ele><time>2026-03-30T10:05:56Z</time></trkpt><trkpt lat="41.746158251357436" lon="1.1826589300851116"><ele>387.0</ele><time>2026-03-30T10:05:57Z</time></trkpt><trkpt lat="41.746017617672024" lon="1.1824362971929132"><ele>387.0</ele><time>2026-03-30T10:05:58Z</time></trkpt><trkpt lat="41.74588704693564" lon="1.1822311010948017"><ele>386.0</ele><time>2026-03-30T10:05:59Z</time></trkpt><trkpt lat="41.74576218076544" lon="1.1820390619565084"><ele>385.0</ele><time>2026-03-30T10:06:00Z</time></trkpt><trkpt lat="41.74564348279329" lon="1.1818577025455228"><ele>384.0</ele><time>2026-03-30T10:06:01Z</time></trkpt><trkpt lat="41.7455229871837" lon="1.181670695093914"><ele>384.33333333333337</ele><time>2026-03-30T10:06:02Z</time></trkpt><trkpt lat="41.745402875751694" lon="1.1814865311046474"><ele>384.6666666666667</ele><time>2026-03-30T10:06:03Z</time></trkpt><trkpt lat="41.74527369076012" lon="1.1812830977369249"><ele>385.0</ele><time>2026-03-30T10:06:04Z</time></trkpt><trkpt lat="41.74515076753091" lon="1.1810894526297235"><ele>383.6666666666667</ele><time>2026-03-30T10:06:05Z</time></trkpt><trkpt lat="41.74502684270542" lon="1.180897415981209"><ele>382.33333333333337</ele><time>2026-03-30T10:06:06Z</time></trkpt><trkpt lat="41.74491247804364" lon="1.180715551684206"><ele>381.0</ele><time>2026-03-30T10:06:07Z</time></trkpt><trkpt lat="41.74480674313853" lon="1.1805451345290081"><ele>381.0</ele><time>2026-03-30T10:06:08Z</time></trkpt><trkpt lat="41.74471048062046" lon="1.18039515287301"><ele>381.0</ele><time>2026-03-30T10:06:09Z</time></trkpt><trkpt lat="41.744635068253984" lon="1.1802730161194863"><ele>381.0</ele><time>2026-03-30T10:06:10Z</time></trkpt><trkpt lat="41.744565114366885" lon="1.1801521457326922"><ele>381.0</ele><time>2026-03-30T10:06:11Z</time></trkpt><trkpt lat="41.74450667971431" lon="1.1800358415552268"><ele>381.0</ele><time>2026-03-30T10:06:12Z</time></trkpt><trkpt lat="41.744462638121746" lon="1.1799230517792896"><ele>381.0</ele><time>2026-03-30T10:06:13Z</time></trkpt><trkpt lat="41.74443026498482" lon="1.179802039455422"><ele>381.0</ele><time>2026-03-30T10:06:14Z</time></trkpt><trkpt lat="41.74442234374972" lon="1.1796587802226763"><ele>381.0</ele><time>2026-03-30T10:06:15Z</time></trkpt><trkpt lat="41.74443120694543" lon="1.1795023228957249"><ele>381.0</ele><time>2026-03-30T10:06:16Z</time></trkpt><trkpt lat="41.74444368203381" lon="1.1793099100577928"><ele>380.3333333333333</ele><time>2026-03-30T10:06:17Z</time></trkpt><trkpt lat="41.74456454202613" lon="1.1790888999425029"><ele>379.66666666666663</ele><time>2026-03-30T10:06:18Z</time></trkpt><trkpt lat="41.74464697899457" lon="1.1788209090932251"><ele>379.0</ele><time>2026-03-30T10:06:19Z</time></trkpt><trkpt lat="41.744719536820575" lon="1.1785910139514577"><ele>378.66666666666663</ele><time>2026-03-30T10:06:20Z</time></trkpt><trkpt lat="41.74480342936978" lon="1.1783561200877763"><ele>378.3333333333333</ele><time>2026-03-30T10:06:21Z</time></trkpt><trkpt lat="41.744884583435486" lon="1.1781219010950517"><ele>378.0</ele><time>2026-03-30T10:06:22Z</time></trkpt><trkpt lat="41.744971792180664" lon="1.1778620626938363"><ele>377.6666666666667</ele><time>2026-03-30T10:06:23Z</time></trkpt><trkpt lat="41.7450674309937" lon="1.1775833175359136"><ele>377.33333333333337</ele><time>2026-03-30T10:06:24Z</time></trkpt><trkpt lat="41.74515091798956" lon="1.1773377386239907"><ele>377.0</ele><time>2026-03-30T10:06:25Z</time></trkpt><trkpt lat="41.745236307796404" lon="1.1770852556966296"><ele>377.0</ele><time>2026-03-30T10:06:26Z</time></trkpt><trkpt lat="41.74531908561655" lon="1.1768317414438125"><ele>377.0</ele><time>2026-03-30T10:06:27Z</time></trkpt><trkpt lat="41.74539453716121" lon="1.1765814768183018"><ele>377.0</ele><time>2026-03-30T10:06:28Z</time></trkpt><trkpt lat="41.74545940237721" lon="1.176324027775138"><ele>377.6666666666667</ele><time>2026-03-30T10:06:29Z</time></trkpt><trkpt lat="41.74550327607657" lon="1.1760538542828693"><ele>378.3333333333333</ele><time>2026-03-30T10:06:30Z</time></trkpt><trkpt lat="41.74553362105765" lon="1.1757801928754348"><ele>379.0</ele><time>2026-03-30T10:06:31Z</time></trkpt><trkpt lat="41.74555684662335" lon="1.1755017924344"><ele>379.66666666666663</ele><time>2026-03-30T10:06:32Z</time></trkpt><trkpt lat="41.74556766793949" lon="1.1752288189377944"><ele>380.3333333333333</ele><time>2026-03-30T10:06:33Z</time></trkpt><trkpt lat="41.74556755021777" lon="1.1749668332108185"><ele>381.0</ele><time>2026-03-30T10:06:34Z</time></trkpt><trkpt lat="41.74556054586356" lon="1.1747040399158837"><ele>381.3333333333333</ele><time>2026-03-30T10:06:35Z</time></trkpt><trkpt lat="41.74555260373601" lon="1.1744428865090768"><ele>381.66666666666663</ele><time>2026-03-30T10:06:36Z</time></trkpt><trkpt lat="41.745544184897554" lon="1.1741805936837035"><ele>382.0</ele><time>2026-03-30T10:06:37Z</time></trkpt><trkpt lat="41.745534892622906" lon="1.1739168145809031"><ele>382.0</ele><time>2026-03-30T10:06:38Z</time></trkpt><trkpt lat="41.74552792138675" lon="1.173650197953306"><ele>382.0</ele><time>2026-03-30T10:06:39Z</time></trkpt><trkpt lat="41.7455185116501" lon="1.1733809835872464"><ele>382.0</ele><time>2026-03-30T10:06:40Z</time></trkpt><trkpt lat="41.74550887368519" lon="1.1731087163785991"><ele>381.3333333333333</ele><time>2026-03-30T10:06:41Z</time></trkpt><trkpt lat="41.74550037161744" lon="1.172834011261372"><ele>380.6666666666667</ele><time>2026-03-30T10:06:42Z</time></trkpt><trkpt lat="41.74549015707816" lon="1.172559481368311"><ele>380.0</ele><time>2026-03-30T10:06:43Z</time></trkpt><trkpt lat="41.745480379469086" lon="1.1722802279121667"><ele>379.33333333333337</ele><time>2026-03-30T10:06:44Z</time></trkpt><trkpt lat="41.74547450140677" lon="1.1719939362346048"><ele>378.6666666666667</ele><time>2026-03-30T10:06:45Z</time></trkpt><trkpt lat="41.74546563243429" lon="1.1717090582080074"><ele>378.0</ele><time>2026-03-30T10:06:46Z</time></trkpt><trkpt lat="41.74545498564606" lon="1.1714222483193204"><ele>378.0</ele><time>2026-03-30T10:06:47Z</time></trkpt><trkpt lat="41.74544999501747" lon="1.1711287069901724"><ele>378.0</ele><time>2026-03-30T10:06:48Z</time></trkpt><trkpt lat="41.74544651542771" lon="1.170836494907389"><ele>378.0</ele><time>2026-03-30T10:06:49Z</time></trkpt><trkpt lat="41.74544772505691" lon="1.1705404417331653"><ele>377.3333333333333</ele><time>2026-03-30T10:06:50Z</time></trkpt><trkpt lat="41.74545644229282" lon="1.1702514049812287"><ele>376.66666666666663</ele><time>2026-03-30T10:06:51Z</time></trkpt><trkpt lat="41.74547156590938" lon="1.1699659284414718"><ele>376.0</ele><time>2026-03-30T10:06:52Z</time></trkpt><trkpt lat="41.74549657042965" lon="1.169684250506664"><ele>375.0</ele><time>2026-03-30T10:06:53Z</time></trkpt><trkpt lat="41.74552617332832" lon="1.1693543102235864"><ele>374.0</ele><time>2026-03-30T10:06:54Z</time></trkpt><trkpt lat="41.74556567406602" lon="1.1690466638121932"><ele>372.5</ele><time>2026-03-30T10:06:55Z</time></trkpt><trkpt lat="41.74560861499894" lon="1.1687403810824921"><ele>371.0</ele><time>2026-03-30T10:06:56Z</time></trkpt><trkpt lat="41.74566138518685" lon="1.168427493949899"><ele>370.5</ele><time>2026-03-30T10:06:57Z</time></trkpt><trkpt lat="41.745723801381935" lon="1.1681229557345303"><ele>370.0</ele><time>2026-03-30T10:06:58Z</time></trkpt><trkpt lat="41.74579462963212" lon="1.1678170003661523"><ele>370.0</ele><time>2026-03-30T10:06:59Z</time></trkpt><trkpt lat="41.74587610374366" lon="1.1674966659303827"><ele>370.0</ele><time>2026-03-30T10:07:00Z</time></trkpt><trkpt lat="41.74596666320864" lon="1.167194064166276"><ele>373.5</ele><time>2026-03-30T10:07:01Z</time></trkpt><trkpt lat="41.74606435959523" lon="1.1668970417148745"><ele>377.0</ele><time>2026-03-30T10:07:02Z</time></trkpt><trkpt lat="41.746167789933686" lon="1.166609064014903"><ele>374.5</ele><time>2026-03-30T10:07:03Z</time></trkpt><trkpt lat="41.74627437652571" lon="1.1663237319442652"><ele>372.0</ele><time>2026-03-30T10:07:04Z</time></trkpt><trkpt lat="41.74637653434059" lon="1.1659598404842768"><ele>370.5</ele><time>2026-03-30T10:07:05Z</time></trkpt><trkpt lat="41.74650507124459" lon="1.165667957359496"><ele>369.0</ele><time>2026-03-30T10:07:06Z</time></trkpt><trkpt lat="41.74664116673209" lon="1.1653893837858542"><ele>369.0</ele><time>2026-03-30T10:07:07Z</time></trkpt><trkpt lat="41.74679055309944" lon="1.1651221655483526"><ele>369.0</ele><time>2026-03-30T10:07:08Z</time></trkpt><trkpt lat="41.74694520954766" lon="1.1648617665223697"><ele>369.5</ele><time>2026-03-30T10:07:09Z</time></trkpt><trkpt lat="41.74710566201571" lon="1.1646126132662054"><ele>370.0</ele><time>2026-03-30T10:07:10Z</time></trkpt><trkpt lat="41.7472661735052" lon="1.1643666074406906"><ele>370.0</ele><time>2026-03-30T10:07:11Z</time></trkpt><trkpt lat="41.74742621633022" lon="1.1641226991199056"><ele>370.0</ele><time>2026-03-30T10:07:12Z</time></trkpt><trkpt lat="41.74759434898926" lon="1.1638805237036156"><ele>369.5</ele><time>2026-03-30T10:07:13Z</time></trkpt><trkpt lat="41.74776421125526" lon="1.1636419059765906"><ele>369.0</ele><time>2026-03-30T10:07:14Z</time></trkpt><trkpt lat="41.74792764005305" lon="1.163396305047115"><ele>368.5</ele><time>2026-03-30T10:07:15Z</time></trkpt><trkpt lat="41.748088641263784" lon="1.163152761880623"><ele>368.0</ele><time>2026-03-30T10:07:16Z</time></trkpt><trkpt lat="41.748248213395435" lon="1.1629052104406858"><ele>368.0</ele><time>2026-03-30T10:07:17Z</time></trkpt><trkpt lat="41.7484058669195" lon="1.1626604486551437"><ele>368.0</ele><time>2026-03-30T10:07:18Z</time></trkpt><trkpt lat="41.748575521912414" lon="1.1624315199279045"><ele>368.5</ele><time>2026-03-30T10:07:19Z</time></trkpt><trkpt lat="41.74874667264414" lon="1.1622056498580629"><ele>369.0</ele><time>2026-03-30T10:07:20Z</time></trkpt><trkpt lat="41.74889960416923" lon="1.161954129676725"><ele>369.0</ele><time>2026-03-30T10:07:21Z</time></trkpt><trkpt lat="41.7490403020243" lon="1.1616951170824332"><ele>369.0</ele><time>2026-03-30T10:07:22Z</time></trkpt><trkpt lat="41.749169231847596" lon="1.1614240154374218"><ele>369.5</ele><time>2026-03-30T10:07:23Z</time></trkpt><trkpt lat="41.74928520996396" lon="1.16113964648803"><ele>370.0</ele><time>2026-03-30T10:07:24Z</time></trkpt><trkpt lat="41.74939482710949" lon="1.1608523443703793"><ele>370.0</ele><time>2026-03-30T10:07:25Z</time></trkpt><trkpt lat="41.74950158260365" lon="1.1605590012739968"><ele>370.0</ele><time>2026-03-30T10:07:26Z</time></trkpt><trkpt lat="41.74960185198341" lon="1.1602553114418774"><ele>370.0</ele><time>2026-03-30T10:07:27Z</time></trkpt><trkpt lat="41.74970043210533" lon="1.1599521168955071"><ele>370.0</ele><time>2026-03-30T10:07:28Z</time></trkpt><trkpt lat="41.749800232564965" lon="1.1596514295363327"><ele>368.5</ele><time>2026-03-30T10:07:29Z</time></trkpt><trkpt lat="41.74990109515475" lon="1.1593516154256005"><ele>367.0</ele><time>2026-03-30T10:07:30Z</time></trkpt><trkpt lat="41.75000783184658" lon="1.1590554871422285"><ele>367.0</ele><time>2026-03-30T10:07:31Z</time></trkpt><trkpt lat="41.75011446496815" lon="1.1587570291580191"><ele>367.0</ele><time>2026-03-30T10:07:32Z</time></trkpt><trkpt lat="41.7502198296013" lon="1.1584558903058"><ele>367.0</ele><time>2026-03-30T10:07:33Z</time></trkpt><trkpt lat="41.75032513044455" lon="1.1581527212032066"><ele>367.0</ele><time>2026-03-30T10:07:34Z</time></trkpt><trkpt lat="41.750433867936785" lon="1.1578314980521645"><ele>367.0</ele><time>2026-03-30T10:07:35Z</time></trkpt><trkpt lat="41.75054957256291" lon="1.1574937960224485"><ele>367.0</ele><time>2026-03-30T10:07:36Z</time></trkpt><trkpt lat="41.75066845244878" lon="1.1571602609532403"><ele>367.0</ele><time>2026-03-30T10:07:37Z</time></trkpt><trkpt lat="41.75077622295163" lon="1.15685206626115"><ele>367.0</ele><time>2026-03-30T10:07:38Z</time></trkpt><trkpt lat="41.750876548149066" lon="1.156555416830693"><ele>365.5</ele><time>2026-03-30T10:07:39Z</time></trkpt><trkpt lat="41.750979555883106" lon="1.1562583563446005"><ele>364.0</ele><time>2026-03-30T10:07:40Z</time></trkpt><trkpt lat="41.75108356300623" lon="1.1559652569971302"><ele>367.0</ele><time>2026-03-30T10:07:41Z</time></trkpt><trkpt lat="41.75118553461563" lon="1.1556820854735546"><ele>370.0</ele><time>2026-03-30T10:07:42Z</time></trkpt><trkpt lat="41.75128076210817" lon="1.1554191371516174"><ele>370.0</ele><time>2026-03-30T10:07:43Z</time></trkpt><trkpt lat="41.751369823488325" lon="1.1551564094336593"><ele>370.0</ele><time>2026-03-30T10:07:44Z</time></trkpt><trkpt lat="41.75147214374233" lon="1.1548864386474567"><ele>370.0</ele><time>2026-03-30T10:07:45Z</time></trkpt><trkpt lat="41.751584407997434" lon="1.1546289236932052"><ele>368.0</ele><time>2026-03-30T10:07:46Z</time></trkpt><trkpt lat="41.75170812856178" lon="1.1543776037241653"><ele>366.0</ele><time>2026-03-30T10:07:47Z</time></trkpt><trkpt lat="41.75185206381444" lon="1.154143565828532"><ele>366.0</ele><time>2026-03-30T10:07:48Z</time></trkpt><trkpt lat="41.752007218080436" lon="1.1539253789228465"><ele>366.0</ele><time>2026-03-30T10:07:49Z</time></trkpt><trkpt lat="41.75217684278995" lon="1.153719498091741"><ele>366.0</ele><time>2026-03-30T10:07:50Z</time></trkpt><trkpt lat="41.75235415818481" lon="1.153520151190061"><ele>366.0</ele><time>2026-03-30T10:07:51Z</time></trkpt><trkpt lat="41.75254072358159" lon="1.153327952689526"><ele>365.0</ele><time>2026-03-30T10:07:52Z</time></trkpt><trkpt lat="41.75273205065177" lon="1.153132535477978"><ele>364.0</ele><time>2026-03-30T10:07:53Z</time></trkpt><trkpt lat="41.752921680954195" lon="1.152929942958155"><ele>364.0</ele><time>2026-03-30T10:07:54Z</time></trkpt><trkpt lat="41.75311004800339" lon="1.1527292869709658"><ele>364.0</ele><time>2026-03-30T10:07:55Z</time></trkpt><trkpt lat="41.75329914565658" lon="1.1525322980119197"><ele>365.0</ele><time>2026-03-30T10:07:56Z</time></trkpt><trkpt lat="41.75348520386076" lon="1.1523341554444715"><ele>366.0</ele><time>2026-03-30T10:07:57Z</time></trkpt><trkpt lat="41.75366778920184" lon="1.152136661127968"><ele>366.3333333333333</ele><time>2026-03-30T10:07:58Z</time></trkpt><trkpt lat="41.753842447508305" lon="1.1519482699659473"><ele>366.66666666666663</ele><time>2026-03-30T10:07:59Z</time></trkpt><trkpt lat="41.75401021550774" lon="1.1517659053186329"><ele>367.0</ele><time>2026-03-30T10:08:00Z</time></trkpt><trkpt lat="41.754178256240486" lon="1.151585684068464"><ele>367.0</ele><time>2026-03-30T10:08:01Z</time></trkpt><trkpt lat="41.754347569757485" lon="1.1514068705882785"><ele>367.0</ele><time>2026-03-30T10:08:02Z</time></trkpt><trkpt lat="41.75452197534241" lon="1.1512238103968855"><ele>367.0</ele><time>2026-03-30T10:08:03Z</time></trkpt><trkpt lat="41.75469463639574" lon="1.1510422911355969"><ele>367.0</ele><time>2026-03-30T10:08:04Z</time></trkpt><trkpt lat="41.754872884952526" lon="1.1508715614290785"><ele>367.0</ele><time>2026-03-30T10:08:05Z</time></trkpt><trkpt lat="41.75506315439654" lon="1.1507187604274887"><ele>367.0</ele><time>2026-03-30T10:08:06Z</time></trkpt><trkpt lat="41.75526427730408" lon="1.1505794511873846"><ele>365.5</ele><time>2026-03-30T10:08:07Z</time></trkpt><trkpt lat="41.75546650863565" lon="1.1504293750587244"><ele>364.0</ele><time>2026-03-30T10:08:08Z</time></trkpt><trkpt lat="41.75566296006648" lon="1.150261673232452"><ele>364.0</ele><time>2026-03-30T10:08:09Z</time></trkpt><trkpt lat="41.755854508251375" lon="1.1500755448081807"><ele>364.0</ele><time>2026-03-30T10:08:10Z</time></trkpt><trkpt lat="41.75603588235872" lon="1.1498635810952305"><ele>363.0</ele><time>2026-03-30T10:08:11Z</time></trkpt><trkpt lat="41.756212263676666" lon="1.1496334249929288"><ele>362.0</ele><time>2026-03-30T10:08:12Z</time></trkpt><trkpt lat="41.75638303206578" lon="1.149390818284045"><ele>362.0</ele><time>2026-03-30T10:08:13Z</time></trkpt><trkpt lat="41.7565590531395" lon="1.149149479113608"><ele>362.0</ele><time>2026-03-30T10:08:14Z</time></trkpt><trkpt lat="41.7567389316346" lon="1.1489083208044601"><ele>362.0</ele><time>2026-03-30T10:08:15Z</time></trkpt><trkpt lat="41.75691780033194" lon="1.1486640241794444"><ele>362.0</ele><time>2026-03-30T10:08:16Z</time></trkpt><trkpt lat="41.757094020777664" lon="1.1484256999842912"><ele>365.0</ele><time>2026-03-30T10:08:17Z</time></trkpt><trkpt lat="41.75727252845654" lon="1.1481829220077564"><ele>368.0</ele><time>2026-03-30T10:08:18Z</time></trkpt><trkpt lat="41.75745127790461" lon="1.147940053966448"><ele>368.0</ele><time>2026-03-30T10:08:19Z</time></trkpt><trkpt lat="41.75763456888133" lon="1.147699244307513"><ele>368.0</ele><time>2026-03-30T10:08:20Z</time></trkpt><trkpt lat="41.75782427683533" lon="1.147460828768341"><ele>367.5</ele><time>2026-03-30T10:08:21Z</time></trkpt><trkpt lat="41.75800851049188" lon="1.1472258418718329"><ele>367.0</ele><time>2026-03-30T10:08:22Z</time></trkpt><trkpt lat="41.75818379868388" lon="1.1469865144373603"><ele>367.0</ele><time>2026-03-30T10:08:23Z</time></trkpt><trkpt lat="41.758351171417885" lon="1.1467591114204152"><ele>367.0</ele><time>2026-03-30T10:08:24Z</time></trkpt><trkpt lat="41.75851884008908" lon="1.1465336570415134"><ele>365.0</ele><time>2026-03-30T10:08:25Z</time></trkpt><trkpt lat="41.758690335291746" lon="1.1463122537487949"><ele>363.0</ele><time>2026-03-30T10:08:26Z</time></trkpt><trkpt lat="41.75885944085622" lon="1.1460962384832496"><ele>363.0</ele><time>2026-03-30T10:08:27Z</time></trkpt><trkpt lat="41.759024874992654" lon="1.145878212385425"><ele>363.0</ele><time>2026-03-30T10:08:28Z</time></trkpt><trkpt lat="41.75919033790766" lon="1.1456611739801545"><ele>362.0</ele><time>2026-03-30T10:08:29Z</time></trkpt><trkpt lat="41.75935469165844" lon="1.1454427229283035"><ele>361.0</ele><time>2026-03-30T10:08:30Z</time></trkpt><trkpt lat="41.75952382924107" lon="1.1452250531542185"><ele>361.0</ele><time>2026-03-30T10:08:31Z</time></trkpt><trkpt lat="41.759692829581226" lon="1.1450030651875502"><ele>361.0</ele><time>2026-03-30T10:08:32Z</time></trkpt><trkpt lat="41.75986029948145" lon="1.1447717670930588"><ele>364.0</ele><time>2026-03-30T10:08:33Z</time></trkpt><trkpt lat="41.76001248278237" lon="1.144533327305505"><ele>367.0</ele><time>2026-03-30T10:08:34Z</time></trkpt><trkpt lat="41.76015001333753" lon="1.1442776364033203"><ele>366.0</ele><time>2026-03-30T10:08:35Z</time></trkpt><trkpt lat="41.7602734405184" lon="1.1440090236460925"><ele>365.0</ele><time>2026-03-30T10:08:36Z</time></trkpt><trkpt lat="41.760397786812725" lon="1.143740875613937"><ele>365.0</ele><time>2026-03-30T10:08:37Z</time></trkpt><trkpt lat="41.76053062977714" lon="1.1434899449049771"><ele>365.0</ele><time>2026-03-30T10:08:38Z</time></trkpt><trkpt lat="41.76068148173584" lon="1.143258462413314"><ele>362.5</ele><time>2026-03-30T10:08:39Z</time></trkpt><trkpt lat="41.76085124356093" lon="1.1430583829012948"><ele>360.0</ele><time>2026-03-30T10:08:40Z</time></trkpt><trkpt lat="41.761048939737435" lon="1.1428959663627303"><ele>360.0</ele><time>2026-03-30T10:08:41Z</time></trkpt><trkpt lat="41.76124902706363" lon="1.1427294000930455"><ele>360.0</ele><time>2026-03-30T10:08:42Z</time></trkpt><trkpt lat="41.76145306335115" lon="1.142554029760363"><ele>364.5</ele><time>2026-03-30T10:08:43Z</time></trkpt><trkpt lat="41.76164768315268" lon="1.142370652373011"><ele>369.0</ele><time>2026-03-30T10:08:44Z</time></trkpt><trkpt lat="41.761847134164476" lon="1.1421984225103792"><ele>367.0</ele><time>2026-03-30T10:08:45Z</time></trkpt><trkpt lat="41.7620535768878" lon="1.142039967738428"><ele>365.0</ele><time>2026-03-30T10:08:46Z</time></trkpt><trkpt lat="41.76227232516469" lon="1.1419025103789395"><ele>365.0</ele><time>2026-03-30T10:08:47Z</time></trkpt><trkpt lat="41.76249090878085" lon="1.1417825278916351"><ele>365.0</ele><time>2026-03-30T10:08:48Z</time></trkpt><trkpt lat="41.762713762621445" lon="1.141679267810824"><ele>362.5</ele><time>2026-03-30T10:08:49Z</time></trkpt><trkpt lat="41.76294401355469" lon="1.1416040307002737"><ele>360.0</ele><time>2026-03-30T10:08:50Z</time></trkpt><trkpt lat="41.76317442903785" lon="1.1415499122841817"><ele>366.5</ele><time>2026-03-30T10:08:51Z</time></trkpt><trkpt lat="41.763412566190794" lon="1.1415187953483"><ele>373.0</ele><time>2026-03-30T10:08:52Z</time></trkpt><trkpt lat="41.763652509922835" lon="1.1414982855264524"><ele>373.0</ele><time>2026-03-30T10:08:53Z</time></trkpt><trkpt lat="41.76389403527699" lon="1.1414913535668412"><ele>373.0</ele><time>2026-03-30T10:08:54Z</time></trkpt><trkpt lat="41.7641407736462" lon="1.1415022155710597"><ele>372.0</ele><time>2026-03-30T10:08:55Z</time></trkpt><trkpt lat="41.76438696251929" lon="1.1415111971153704"><ele>371.0</ele><time>2026-03-30T10:08:56Z</time></trkpt><trkpt lat="41.764634050386945" lon="1.1415191057042164"><ele>371.0</ele><time>2026-03-30T10:08:57Z</time></trkpt><trkpt lat="41.76487458477352" lon="1.14152087033065"><ele>371.0</ele><time>2026-03-30T10:08:58Z</time></trkpt><trkpt lat="41.76511859727794" lon="1.1415249386437576"><ele>369.5</ele><time>2026-03-30T10:08:59Z</time></trkpt><trkpt lat="41.76535759599664" lon="1.1415307635729626"><ele>368.0</ele><time>2026-03-30T10:09:00Z</time></trkpt><trkpt lat="41.76559177893652" lon="1.141537108599187"><ele>368.0</ele><time>2026-03-30T10:09:01Z</time></trkpt><trkpt lat="41.76582551327386" lon="1.1415335427952191"><ele>368.0</ele><time>2026-03-30T10:09:02Z</time></trkpt><trkpt lat="41.766056137752805" lon="1.1415247868007583"><ele>365.0</ele><time>2026-03-30T10:09:03Z</time></trkpt><trkpt lat="41.76627788404981" lon="1.1414830640900748"><ele>362.0</ele><time>2026-03-30T10:09:04Z</time></trkpt><trkpt lat="41.76649061555896" lon="1.1413873781815398"><ele>359.0</ele><time>2026-03-30T10:09:05Z</time></trkpt><trkpt lat="41.76669329607762" lon="1.1412611460833686"><ele>357.33333333333337</ele><time>2026-03-30T10:09:06Z</time></trkpt><trkpt lat="41.76689123077905" lon="1.141128091211605"><ele>355.6666666666667</ele><time>2026-03-30T10:09:07Z</time></trkpt><trkpt lat="41.7670903401009" lon="1.1410051080299222"><ele>354.0</ele><time>2026-03-30T10:09:08Z</time></trkpt><trkpt lat="41.76729263890278" lon="1.1409012025870413"><ele>354.0</ele><time>2026-03-30T10:09:09Z</time></trkpt><trkpt lat="41.76748599030447" lon="1.1408108096458367"><ele>354.0</ele><time>2026-03-30T10:09:10Z</time></trkpt><trkpt lat="41.767685481262774" lon="1.1407171710793447"><ele>354.0</ele><time>2026-03-30T10:09:11Z</time></trkpt><trkpt lat="41.76788955077523" lon="1.140621009964791"><ele>354.3333333333333</ele><time>2026-03-30T10:09:12Z</time></trkpt><trkpt lat="41.76809950891875" lon="1.1405293870111617"><ele>354.66666666666663</ele><time>2026-03-30T10:09:13Z</time></trkpt><trkpt lat="41.76831303525783" lon="1.140450989567062"><ele>355.0</ele><time>2026-03-30T10:09:14Z</time></trkpt><trkpt lat="41.76852876041172" lon="1.1403807844756193"><ele>354.0</ele><time>2026-03-30T10:09:15Z</time></trkpt><trkpt lat="41.768732584421635" lon="1.1403011532811382"><ele>353.0</ele><time>2026-03-30T10:09:16Z</time></trkpt><trkpt lat="41.76894101477693" lon="1.1401989474618857"><ele>352.0</ele><time>2026-03-30T10:09:17Z</time></trkpt><trkpt lat="41.76913553206759" lon="1.1400767761885324"><ele>352.0</ele><time>2026-03-30T10:09:18Z</time></trkpt><trkpt lat="41.76931050054214" lon="1.1398949829519143"><ele>352.0</ele><time>2026-03-30T10:09:19Z</time></trkpt><trkpt lat="41.769487180419404" lon="1.1397342730240163"><ele>352.0</ele><time>2026-03-30T10:09:20Z</time></trkpt><trkpt lat="41.769639428591205" lon="1.1395155770097463"><ele>352.3333333333333</ele><time>2026-03-30T10:09:21Z</time></trkpt><trkpt lat="41.76978389539715" lon="1.139288268791496"><ele>352.6666666666667</ele><time>2026-03-30T10:09:22Z</time></trkpt><trkpt lat="41.76993726392112" lon="1.1390706541590612"><ele>353.0</ele><time>2026-03-30T10:09:23Z</time></trkpt><trkpt lat="41.77009534021304" lon="1.1388579317925318"><ele>351.5</ele><time>2026-03-30T10:09:24Z</time></trkpt><trkpt lat="41.77019495245719" lon="1.138556693298832"><ele>350.0</ele><time>2026-03-30T10:09:25Z</time></trkpt><trkpt lat="41.77033869556744" lon="1.1382935533903515"><ele>351.0</ele><time>2026-03-30T10:09:26Z</time></trkpt><trkpt lat="41.770480190304994" lon="1.138033143874604"><ele>352.0</ele><time>2026-03-30T10:09:27Z</time></trkpt><trkpt lat="41.77062269856284" lon="1.137782120157241"><ele>352.0</ele><time>2026-03-30T10:09:28Z</time></trkpt><trkpt lat="41.770760143296904" lon="1.1375332919591068"><ele>352.0</ele><time>2026-03-30T10:09:29Z</time></trkpt><trkpt lat="41.77088587040644" lon="1.1372671702723918"><ele>350.5</ele><time>2026-03-30T10:09:30Z</time></trkpt><trkpt lat="41.77099419287432" lon="1.1369913798763882"><ele>349.0</ele><time>2026-03-30T10:09:31Z</time></trkpt><trkpt lat="41.771097623466694" lon="1.1367096750021397"><ele>350.0</ele><time>2026-03-30T10:09:32Z</time></trkpt><trkpt lat="41.77119985522856" lon="1.1364260393684822"><ele>351.0</ele><time>2026-03-30T10:09:33Z</time></trkpt><trkpt lat="41.771302764380636" lon="1.1361402076183713"><ele>351.0</ele><time>2026-03-30T10:09:34Z</time></trkpt><trkpt lat="41.7714040248578" lon="1.135855100388396"><ele>351.0</ele><time>2026-03-30T10:09:35Z</time></trkpt><trkpt lat="41.771504669648884" lon="1.1355708287815465"><ele>351.0</ele><time>2026-03-30T10:09:36Z</time></trkpt><trkpt lat="41.77160596002576" lon="1.1352930775353762"><ele>351.0</ele><time>2026-03-30T10:09:37Z</time></trkpt><trkpt lat="41.77170703955484" lon="1.1350200645655315"><ele>351.6666666666667</ele><time>2026-03-30T10:09:38Z</time></trkpt><trkpt lat="41.77180300401582" lon="1.1347520336418948"><ele>352.33333333333337</ele><time>2026-03-30T10:09:39Z</time></trkpt><trkpt lat="41.771895088622394" lon="1.1344880073381705"><ele>353.0</ele><time>2026-03-30T10:09:40Z</time></trkpt><trkpt lat="41.77198919528277" lon="1.1342299954759236"><ele>351.6666666666667</ele><time>2026-03-30T10:09:41Z</time></trkpt><trkpt lat="41.77208062577947" lon="1.1339703077415"><ele>350.3333333333333</ele><time>2026-03-30T10:09:42Z</time></trkpt><trkpt lat="41.77216260691768" lon="1.1337057914785698"><ele>349.0</ele><time>2026-03-30T10:09:43Z</time></trkpt><trkpt lat="41.77224154324512" lon="1.1334362850108577"><ele>349.3333333333333</ele><time>2026-03-30T10:09:44Z</time></trkpt><trkpt lat="41.77230971280498" lon="1.1331619743138823"><ele>349.6666666666667</ele><time>2026-03-30T10:09:45Z</time></trkpt><trkpt lat="41.77238089108957" lon="1.1328715560298686"><ele>350.0</ele><time>2026-03-30T10:09:46Z</time></trkpt><trkpt lat="41.772451026000205" lon="1.1325872649906512"><ele>350.0</ele><time>2026-03-30T10:09:47Z</time></trkpt><trkpt lat="41.772525609963026" lon="1.132285801868611"><ele>350.0</ele><time>2026-03-30T10:09:48Z</time></trkpt><trkpt lat="41.772599423016686" lon="1.1319869206986573"><ele>350.0</ele><time>2026-03-30T10:09:49Z</time></trkpt><trkpt lat="41.77267636722474" lon="1.1316835671785745"><ele>350.0</ele><time>2026-03-30T10:09:50Z</time></trkpt><trkpt lat="41.7727498789281" lon="1.1313799202245285"><ele>348.5</ele><time>2026-03-30T10:09:51Z</time></trkpt><trkpt lat="41.77282349719555" lon="1.13108165914674"><ele>347.0</ele><time>2026-03-30T10:09:52Z</time></trkpt><trkpt lat="41.772903016348735" lon="1.1307756025845437"><ele>347.0</ele><time>2026-03-30T10:09:53Z</time></trkpt><trkpt lat="41.772974948976454" lon="1.1304797720581632"><ele>347.0</ele><time>2026-03-30T10:09:54Z</time></trkpt><trkpt lat="41.77304819641514" lon="1.1301830588788055"><ele>347.5</ele><time>2026-03-30T10:09:55Z</time></trkpt><trkpt lat="41.773119469710835" lon="1.1298906838280072"><ele>348.0</ele><time>2026-03-30T10:09:56Z</time></trkpt><trkpt lat="41.77319804129527" lon="1.1295826379961873"><ele>348.0</ele><time>2026-03-30T10:09:57Z</time></trkpt><trkpt lat="41.773271112678316" lon="1.1292884942552892"><ele>348.0</ele><time>2026-03-30T10:09:58Z</time></trkpt><trkpt lat="41.77334312786041" lon="1.1289959037244819"><ele>349.0</ele><time>2026-03-30T10:09:59Z</time></trkpt><trkpt lat="41.773417100873885" lon="1.128706888202445"><ele>350.0</ele><time>2026-03-30T10:10:00Z</time></trkpt><trkpt lat="41.77348728521881" lon="1.12841978876324"><ele>348.33333333333337</ele><time>2026-03-30T10:10:01Z</time></trkpt><trkpt lat="41.77355245327884" lon="1.1281368500459332"><ele>346.6666666666667</ele><time>2026-03-30T10:10:02Z</time></trkpt><trkpt lat="41.77361977145438" lon="1.1278545615930262"><ele>345.0</ele><time>2026-03-30T10:10:03Z</time></trkpt><trkpt lat="41.773682528346335" lon="1.1275686840297436"><ele>345.3333333333333</ele><time>2026-03-30T10:10:04Z</time></trkpt><trkpt lat="41.77373513830521" lon="1.1272798947583702"><ele>345.66666666666663</ele><time>2026-03-30T10:10:05Z</time></trkpt><trkpt lat="41.77378533214688" lon="1.1269910805794836"><ele>346.0</ele><time>2026-03-30T10:10:06Z</time></trkpt><trkpt lat="41.77383670754164" lon="1.1267023106797036"><ele>345.5</ele><time>2026-03-30T10:10:07Z</time></trkpt><trkpt lat="41.773890987764695" lon="1.1264121061601973"><ele>345.0</ele><time>2026-03-30T10:10:08Z</time></trkpt><trkpt lat="41.77394852088959" lon="1.126116840346512"><ele>345.0</ele><time>2026-03-30T10:10:09Z</time></trkpt><trkpt lat="41.77400681769111" lon="1.1258239728468642"><ele>345.0</ele><time>2026-03-30T10:10:10Z</time></trkpt><trkpt lat="41.77405877070725" lon="1.125542267761362"><ele>345.0</ele><time>2026-03-30T10:10:11Z</time></trkpt><trkpt lat="41.77411579259106" lon="1.125231287388853"><ele>344.5</ele><time>2026-03-30T10:10:12Z</time></trkpt><trkpt lat="41.7741698392551" lon="1.124927140329238"><ele>344.0</ele><time>2026-03-30T10:10:13Z</time></trkpt><trkpt lat="41.77422548918356" lon="1.1246269404981473"><ele>344.5</ele><time>2026-03-30T10:10:14Z</time></trkpt><trkpt lat="41.77428157710455" lon="1.1243233193966282"><ele>345.0</ele><time>2026-03-30T10:10:15Z</time></trkpt><trkpt lat="41.774340435292395" lon="1.124017137450808"><ele>345.0</ele><time>2026-03-30T10:10:16Z</time></trkpt><trkpt lat="41.77440001638277" lon="1.1237094955413183"><ele>345.0</ele><time>2026-03-30T10:10:17Z</time></trkpt><trkpt lat="41.774457519459816" lon="1.12340194668479"><ele>343.5</ele><time>2026-03-30T10:10:18Z</time></trkpt><trkpt lat="41.774512735376646" lon="1.1230911616550883"><ele>342.0</ele><time>2026-03-30T10:10:19Z</time></trkpt><trkpt lat="41.77457214954435" lon="1.1227821032928278"><ele>342.0</ele><time>2026-03-30T10:10:20Z</time></trkpt><trkpt lat="41.7746326795912" lon="1.1224780166467343"><ele>342.0</ele><time>2026-03-30T10:10:21Z</time></trkpt><trkpt lat="41.774683342567585" lon="1.1221903125124812"><ele>342.0</ele><time>2026-03-30T10:10:22Z</time></trkpt><trkpt lat="41.774737973167056" lon="1.1219053890694555"><ele>342.0</ele><time>2026-03-30T10:10:23Z</time></trkpt><trkpt lat="41.77479126189053" lon="1.121631650304442"><ele>342.0</ele><time>2026-03-30T10:10:24Z</time></trkpt><trkpt lat="41.774840466547985" lon="1.1213585257045466"><ele>341.6666666666667</ele><time>2026-03-30T10:10:25Z</time></trkpt><trkpt lat="41.77489139747458" lon="1.1210884048354701"><ele>341.33333333333337</ele><time>2026-03-30T10:10:26Z</time></trkpt><trkpt lat="41.77494450298783" lon="1.1208176307365116"><ele>341.0</ele><time>2026-03-30T10:10:27Z</time></trkpt><trkpt lat="41.77499514372255" lon="1.1205497260262214"><ele>341.0</ele><time>2026-03-30T10:10:28Z</time></trkpt><trkpt lat="41.77504415834056" lon="1.1202844164606791"><ele>341.0</ele><time>2026-03-30T10:10:29Z</time></trkpt><trkpt lat="41.7750918938884" lon="1.1200211017843162"><ele>341.0</ele><time>2026-03-30T10:10:30Z</time></trkpt><trkpt lat="41.77514224954086" lon="1.119757702006861"><ele>341.33333333333337</ele><time>2026-03-30T10:10:31Z</time></trkpt><trkpt lat="41.77519329459204" lon="1.1194954082986868"><ele>341.6666666666667</ele><time>2026-03-30T10:10:32Z</time></trkpt><trkpt lat="41.77524324508538" lon="1.1192331577064778"><ele>342.0</ele><time>2026-03-30T10:10:33Z</time></trkpt><trkpt lat="41.775292619900085" lon="1.1189736565445658"><ele>341.6666666666667</ele><time>2026-03-30T10:10:34Z</time></trkpt><trkpt lat="41.775338707609514" lon="1.1187089357511735"><ele>341.33333333333337</ele><time>2026-03-30T10:10:35Z</time></trkpt><trkpt lat="41.77538813060218" lon="1.1184547444242496"><ele>341.0</ele><time>2026-03-30T10:10:36Z</time></trkpt><trkpt lat="41.775459086372685" lon="1.1182048937551914"><ele>341.0</ele><time>2026-03-30T10:10:37Z</time></trkpt><trkpt lat="41.77554387422212" lon="1.1179653018930273"><ele>341.0</ele><time>2026-03-30T10:10:38Z</time></trkpt><trkpt lat="41.77564804838943" lon="1.1177348439548351"><ele>341.0</ele><time>2026-03-30T10:10:39Z</time></trkpt><trkpt lat="41.7757700237476" lon="1.1175127553090445"><ele>341.0</ele><time>2026-03-30T10:10:40Z</time></trkpt><trkpt lat="41.775897320779315" lon="1.1173087083457895"><ele>341.0</ele><time>2026-03-30T10:10:41Z</time></trkpt><trkpt lat="41.77603107876898" lon="1.1171124762395361"><ele>341.0</ele><time>2026-03-30T10:10:42Z</time></trkpt><trkpt lat="41.776177810429324" lon="1.1169205738309418"><ele>341.0</ele><time>2026-03-30T10:10:43Z</time></trkpt><trkpt lat="41.77633473078907" lon="1.1167579901149813"><ele>341.0</ele><time>2026-03-30T10:10:44Z</time></trkpt><trkpt lat="41.77648969713959" lon="1.1166208003680886"><ele>341.0</ele><time>2026-03-30T10:10:45Z</time></trkpt><trkpt lat="41.77664486835435" lon="1.1164997981755624"><ele>342.6666666666667</ele><time>2026-03-30T10:10:46Z</time></trkpt><trkpt lat="41.77680741236873" lon="1.116385167856461"><ele>344.3333333333333</ele><time>2026-03-30T10:10:47Z</time></trkpt><trkpt lat="41.77697421963725" lon="1.116280274401237"><ele>346.0</ele><time>2026-03-30T10:10:48Z</time></trkpt><trkpt lat="41.777136241353304" lon="1.1161885274964813"><ele>346.0</ele><time>2026-03-30T10:10:49Z</time></trkpt><trkpt lat="41.77729471990893" lon="1.1160969352597574"><ele>346.0</ele><time>2026-03-30T10:10:50Z</time></trkpt><trkpt lat="41.77744745411484" lon="1.116010051960207"><ele>346.0</ele><time>2026-03-30T10:10:51Z</time></trkpt><trkpt lat="41.777594597620606" lon="1.1159181131924585"><ele>346.0</ele><time>2026-03-30T10:10:52Z</time></trkpt><trkpt lat="41.777735482472615" lon="1.1158266221359512"><ele>346.0</ele><time>2026-03-30T10:10:53Z</time></trkpt><trkpt lat="41.77787703678719" lon="1.115730543670744"><ele>346.0</ele><time>2026-03-30T10:10:54Z</time></trkpt><trkpt lat="41.778015909422926" lon="1.1156186026106132"><ele>346.0</ele><time>2026-03-30T10:10:55Z</time></trkpt><trkpt lat="41.778153998242836" lon="1.1154730278540748"><ele>346.0</ele><time>2026-03-30T10:10:56Z</time></trkpt><trkpt lat="41.77828592971395" lon="1.1153125644540645"><ele>346.0</ele><time>2026-03-30T10:10:57Z</time></trkpt><trkpt lat="41.77840669613612" lon="1.1151400877368292"><ele>347.0</ele><time>2026-03-30T10:10:58Z</time></trkpt><trkpt lat="41.77852302003132" lon="1.1149651338195121"><ele>348.0</ele><time>2026-03-30T10:10:59Z</time></trkpt><trkpt lat="41.778646038752555" lon="1.1147938615273991"><ele>349.0</ele><time>2026-03-30T10:11:00Z</time></trkpt><trkpt lat="41.778771256988655" lon="1.1146214452265657"><ele>350.3333333333333</ele><time>2026-03-30T10:11:01Z</time></trkpt><trkpt lat="41.77888369662848" lon="1.1144628628148303"><ele>351.6666666666667</ele><time>2026-03-30T10:11:02Z</time></trkpt><trkpt lat="41.778985050684405" lon="1.1143144894724004"><ele>353.0</ele><time>2026-03-30T10:11:03Z</time></trkpt><trkpt lat="41.779077349247295" lon="1.114173066984828"><ele>352.0</ele><time>2026-03-30T10:11:04Z</time></trkpt><trkpt lat="41.77916462723068" lon="1.114043340600034"><ele>351.0</ele><time>2026-03-30T10:11:05Z</time></trkpt><trkpt lat="41.77924417419893" lon="1.1139172613557518"><ele>350.0</ele><time>2026-03-30T10:11:06Z</time></trkpt><trkpt lat="41.77931274562399" lon="1.1137941425283604"><ele>349.0</ele><time>2026-03-30T10:11:07Z</time></trkpt><trkpt lat="41.77937756835451" lon="1.1136735982274826"><ele>349.0</ele><time>2026-03-30T10:11:08Z</time></trkpt><trkpt lat="41.77943324162286" lon="1.1135541359956667"><ele>349.0</ele><time>2026-03-30T10:11:09Z</time></trkpt><trkpt lat="41.779482332946586" lon="1.1134361846962926"><ele>349.0</ele><time>2026-03-30T10:11:10Z</time></trkpt><trkpt lat="41.77953604102894" lon="1.113322707364725"><ele>349.0</ele><time>2026-03-30T10:11:11Z</time></trkpt><trkpt lat="41.7795887366593" lon="1.1132085709779098"><ele>349.0</ele><time>2026-03-30T10:11:12Z</time></trkpt><trkpt lat="41.77964267713942" lon="1.1131066029064902"><ele>349.0</ele><time>2026-03-30T10:11:13Z</time></trkpt><trkpt lat="41.77969655027046" lon="1.1130244277846282"><ele>349.0</ele><time>2026-03-30T10:11:14Z</time></trkpt><trkpt lat="41.77975474805902" lon="1.1129730151634365"><ele>349.0</ele><time>2026-03-30T10:11:15Z</time></trkpt><trkpt lat="41.779866308536526" lon="1.1129234988324326"><ele>349.0</ele><time>2026-03-30T10:11:17Z</time></trkpt><trkpt lat="41.77991941691643" lon="1.112875094747412"><ele>349.0</ele><time>2026-03-30T10:11:18Z</time></trkpt><trkpt lat="41.77996539567633" lon="1.1127868002118155"><ele>349.0</ele><time>2026-03-30T10:11:19Z</time></trkpt><trkpt lat="41.779984424989095" lon="1.1126799679946888"><ele>349.0</ele><time>2026-03-30T10:11:20Z</time></trkpt><trkpt lat="41.779979673501074" lon="1.1125852486843322"><ele>349.0</ele><time>2026-03-30T10:11:21Z</time></trkpt><trkpt lat="41.77997164142099" lon="1.1124250534462847"><ele>349.0</ele><time>2026-03-30T10:11:23Z</time></trkpt><trkpt lat="41.77999258335714" lon="1.1123343976832762"><ele>349.0</ele><time>2026-03-30T10:11:24Z</time></trkpt><trkpt lat="41.78003244663514" lon="1.112241243895868"><ele>349.0</ele><time>2026-03-30T10:11:25Z</time></trkpt><trkpt lat="41.780077588657605" lon="1.1121698733833911"><ele>349.0</ele><time>2026-03-30T10:11:26Z</time></trkpt><trkpt lat="41.780115802713404" lon="1.1120911304845311"><ele>349.0</ele><time>2026-03-30T10:11:27Z</time></trkpt><trkpt lat="41.780158713668904" lon="1.1119970311228267"><ele>349.0</ele><time>2026-03-30T10:11:28Z</time></trkpt><trkpt lat="41.78020822816748" lon="1.111891167273314"><ele>349.0</ele><time>2026-03-30T10:11:29Z</time></trkpt><trkpt lat="41.78026100737274" lon="1.1117757112971705"><ele>349.0</ele><time>2026-03-30T10:11:30Z</time></trkpt><trkpt lat="41.78031218294257" lon="1.1116634686109441"><ele>349.0</ele><time>2026-03-30T10:11:31Z</time></trkpt><trkpt lat="41.780359958054184" lon="1.1115603979392892"><ele>348.79999999999995</ele><time>2026-03-30T10:11:32Z</time></trkpt><trkpt lat="41.780411380200476" lon="1.1114485355688593"><ele>348.59999999999997</ele><time>2026-03-30T10:11:33Z</time></trkpt><trkpt lat="41.78046782870014" lon="1.1113227654652795"><ele>348.4</ele><time>2026-03-30T10:11:34Z</time></trkpt><trkpt lat="41.780530611266435" lon="1.1111923501017942"><ele>348.2</ele><time>2026-03-30T10:11:35Z</time></trkpt><trkpt lat="41.78059718879667" lon="1.1110576031985921"><ele>348.0</ele><time>2026-03-30T10:11:36Z</time></trkpt><trkpt lat="41.78066272045215" lon="1.1109188775479426"><ele>348.0</ele><time>2026-03-30T10:11:37Z</time></trkpt><trkpt lat="41.78072727137397" lon="1.1107805351421414"><ele>348.0</ele><time>2026-03-30T10:11:38Z</time></trkpt><trkpt lat="41.78079199929011" lon="1.110645836404823"><ele>348.0</ele><time>2026-03-30T10:11:39Z</time></trkpt><trkpt lat="41.78085588407423" lon="1.1105079712555543"><ele>348.0</ele><time>2026-03-30T10:11:40Z</time></trkpt><trkpt lat="41.78091284502559" lon="1.1103836430149623"><ele>347.0</ele><time>2026-03-30T10:11:41Z</time></trkpt><trkpt lat="41.780953380406125" lon="1.1102936239662187"><ele>346.0</ele><time>2026-03-30T10:11:42Z</time></trkpt><trkpt lat="41.78098926775301" lon="1.1102187479730437"><ele>345.0</ele><time>2026-03-30T10:11:43Z</time></trkpt><trkpt lat="41.781050165703455" lon="1.110085632726057"><ele>344.0</ele><time>2026-03-30T10:11:45Z</time></trkpt><trkpt lat="41.781118226256126" lon="1.1099295612978597"><ele>343.0</ele><time>2026-03-30T10:11:47Z</time></trkpt><trkpt lat="41.781169759357894" lon="1.1098209954193425"><ele>341.79999999999995</ele><time>2026-03-30T10:11:48Z</time></trkpt><trkpt lat="41.78122293323553" lon="1.1097038678407396"><ele>340.6</ele><time>2026-03-30T10:11:49Z</time></trkpt><trkpt lat="41.781277668085714" lon="1.1095860344497932"><ele>339.4</ele><time>2026-03-30T10:11:50Z</time></trkpt><trkpt lat="41.781338697842564" lon="1.1094614874625863"><ele>338.20000000000005</ele><time>2026-03-30T10:11:51Z</time></trkpt><trkpt lat="41.78139902398175" lon="1.1093341978046691"><ele>337.0</ele><time>2026-03-30T10:11:52Z</time></trkpt><trkpt lat="41.78145614564943" lon="1.109211804721785"><ele>336.5</ele><time>2026-03-30T10:11:53Z</time></trkpt><trkpt lat="41.78152108539389" lon="1.1090705986603022"><ele>336.0</ele><time>2026-03-30T10:11:54Z</time></trkpt><trkpt lat="41.78159419532335" lon="1.1089064127232784"><ele>335.5</ele><time>2026-03-30T10:11:55Z</time></trkpt><trkpt lat="41.781673281998266" lon="1.1087361367518143"><ele>335.0</ele><time>2026-03-30T10:11:56Z</time></trkpt><trkpt lat="41.78174982193648" lon="1.1085724941174122"><ele>335.0</ele><time>2026-03-30T10:11:57Z</time></trkpt><trkpt lat="41.7818290942947" lon="1.1084094526998962"><ele>335.0</ele><time>2026-03-30T10:11:58Z</time></trkpt><trkpt lat="41.78190581298193" lon="1.1082411047008986"><ele>335.0</ele><time>2026-03-30T10:11:59Z</time></trkpt><trkpt lat="41.78198440134617" lon="1.1080708991437267"><ele>335.0</ele><time>2026-03-30T10:12:00Z</time></trkpt><trkpt lat="41.78206291744017" lon="1.1078981286468916"><ele>334.33333333333337</ele><time>2026-03-30T10:12:01Z</time></trkpt><trkpt lat="41.782144335241604" lon="1.1077290222345446"><ele>333.6666666666667</ele><time>2026-03-30T10:12:02Z</time></trkpt><trkpt lat="41.782225668908325" lon="1.1075532690141434"><ele>333.0</ele><time>2026-03-30T10:12:03Z</time></trkpt><trkpt lat="41.78230654127753" lon="1.1073744812169113"><ele>333.0</ele><time>2026-03-30T10:12:04Z</time></trkpt><trkpt lat="41.78238662331563" lon="1.107200671502002"><ele>333.0</ele><time>2026-03-30T10:12:05Z</time></trkpt><trkpt lat="41.7824613660413" lon="1.1070391432094766"><ele>333.0</ele><time>2026-03-30T10:12:06Z</time></trkpt><trkpt lat="41.78253842809185" lon="1.106886083115088"><ele>333.0</ele><time>2026-03-30T10:12:07Z</time></trkpt><trkpt lat="41.782624094641776" lon="1.1067712357145392"><ele>333.0</ele><time>2026-03-30T10:12:08Z</time></trkpt><trkpt lat="41.78272182371827" lon="1.106708392110674"><ele>333.0</ele><time>2026-03-30T10:12:09Z</time></trkpt><trkpt lat="41.78282150755961" lon="1.106664842966366"><ele>333.0</ele><time>2026-03-30T10:12:10Z</time></trkpt><trkpt lat="41.78289668982367" lon="1.1065938886597628"><ele>333.0</ele><time>2026-03-30T10:12:11Z</time></trkpt><trkpt lat="41.7829392447726" lon="1.1064740677457463"><ele>333.0</ele><time>2026-03-30T10:12:12Z</time></trkpt><trkpt lat="41.78294768998771" lon="1.106351285954445"><ele>332.6666666666667</ele><time>2026-03-30T10:12:13Z</time></trkpt><trkpt lat="41.78293822024525" lon="1.1062489086219436"><ele>332.3333333333333</ele><time>2026-03-30T10:12:14Z</time></trkpt><trkpt lat="41.78291526334926" lon="1.1061534820344927"><ele>332.0</ele><time>2026-03-30T10:12:15Z</time></trkpt><trkpt lat="41.782901246944455" lon="1.1060623286413298"><ele>331.66666666666663</ele><time>2026-03-30T10:12:16Z</time></trkpt><trkpt lat="41.782911616018716" lon="1.1059781756020914"><ele>331.3333333333333</ele><time>2026-03-30T10:12:17Z</time></trkpt><trkpt lat="41.782979170996605" lon="1.1058932230867367"><ele>331.0</ele><time>2026-03-30T10:12:19Z</time></trkpt><trkpt lat="41.783039835304194" lon="1.1057711974744417"><ele>331.3333333333333</ele><time>2026-03-30T10:12:21Z</time></trkpt><trkpt lat="41.78308396658016" lon="1.1056831537768765"><ele>331.66666666666663</ele><time>2026-03-30T10:12:22Z</time></trkpt><trkpt lat="41.78313309020635" lon="1.105586164871885"><ele>332.0</ele><time>2026-03-30T10:12:23Z</time></trkpt><trkpt lat="41.783176354278744" lon="1.1054999060211472"><ele>332.3333333333333</ele><time>2026-03-30T10:12:24Z</time></trkpt><trkpt lat="41.78321967535147" lon="1.105403968174403"><ele>332.6666666666667</ele><time>2026-03-30T10:12:25Z</time></trkpt><trkpt lat="41.7832699173558" lon="1.1052931999875615"><ele>333.0</ele><time>2026-03-30T10:12:26Z</time></trkpt><trkpt lat="41.78332592851348" lon="1.1051722814898202"><ele>333.0</ele><time>2026-03-30T10:12:27Z</time></trkpt><trkpt lat="41.783389986360866" lon="1.1050300645809623"><ele>333.0</ele><time>2026-03-30T10:12:28Z</time></trkpt><trkpt lat="41.78345236394645" lon="1.1049053809943468"><ele>333.0</ele><time>2026-03-30T10:12:29Z</time></trkpt><trkpt lat="41.783501360177006" lon="1.1047984098184107"><ele>333.0</ele><time>2026-03-30T10:12:30Z</time></trkpt><trkpt lat="41.78355270461454" lon="1.1046960848342209"><ele>333.0</ele><time>2026-03-30T10:12:31Z</time></trkpt><trkpt lat="41.783608000869236" lon="1.1045810911225649"><ele>333.59999999999997</ele><time>2026-03-30T10:12:32Z</time></trkpt><trkpt lat="41.78366162030214" lon="1.1044488326817232"><ele>334.2</ele><time>2026-03-30T10:12:33Z</time></trkpt><trkpt lat="41.78372464063718" lon="1.104317206138629"><ele>334.8</ele><time>2026-03-30T10:12:34Z</time></trkpt><trkpt lat="41.783783705927036" lon="1.1041985767353677"><ele>335.4</ele><time>2026-03-30T10:12:35Z</time></trkpt><trkpt lat="41.78383945899868" lon="1.1040818603107436"><ele>336.0</ele><time>2026-03-30T10:12:36Z</time></trkpt><trkpt lat="41.783891238149245" lon="1.103966219620604"><ele>336.0</ele><time>2026-03-30T10:12:37Z</time></trkpt><trkpt lat="41.78394455031754" lon="1.103852102958866"><ele>336.0</ele><time>2026-03-30T10:12:38Z</time></trkpt><trkpt lat="41.7839986608529" lon="1.1037382959561077"><ele>336.0</ele><time>2026-03-30T10:12:39Z</time></trkpt><trkpt lat="41.78405439082856" lon="1.1036179428509507"><ele>336.0</ele><time>2026-03-30T10:12:40Z</time></trkpt><trkpt lat="41.78410812517615" lon="1.1034979379886263"><ele>336.0</ele><time>2026-03-30T10:12:41Z</time></trkpt><trkpt lat="41.78416092263056" lon="1.103381520753481"><ele>336.0</ele><time>2026-03-30T10:12:42Z</time></trkpt><trkpt lat="41.78421466089085" lon="1.1032659930488142"><ele>336.0</ele><time>2026-03-30T10:12:43Z</time></trkpt><trkpt lat="41.784274046803155" lon="1.1031418156275685"><ele>336.0</ele><time>2026-03-30T10:12:44Z</time></trkpt><trkpt lat="41.78433268062621" lon="1.1030195391020665"><ele>336.0</ele><time>2026-03-30T10:12:45Z</time></trkpt><trkpt lat="41.78438181261128" lon="1.1029116019736926"><ele>336.0</ele><time>2026-03-30T10:12:46Z</time></trkpt><trkpt lat="41.78443143846974" lon="1.1028073644735275"><ele>335.8333333333333</ele><time>2026-03-30T10:12:47Z</time></trkpt><trkpt lat="41.78448318773795" lon="1.102694671970831"><ele>335.6666666666667</ele><time>2026-03-30T10:12:48Z</time></trkpt><trkpt lat="41.78453368651614" lon="1.1025826262118206"><ele>335.5</ele><time>2026-03-30T10:12:49Z</time></trkpt><trkpt lat="41.78457609908967" lon="1.102487088615693"><ele>335.33333333333337</ele><time>2026-03-30T10:12:50Z</time></trkpt><trkpt lat="41.784611527695866" lon="1.1024030097168307"><ele>335.1666666666667</ele><time>2026-03-30T10:12:51Z</time></trkpt><trkpt lat="41.78464677024326" lon="1.1023236806951648"><ele>335.0</ele><time>2026-03-30T10:12:52Z</time></trkpt><trkpt lat="41.78467888807438" lon="1.102246840031271"><ele>335.33333333333337</ele><time>2026-03-30T10:12:53Z</time></trkpt><trkpt lat="41.78471184375563" lon="1.1021702058152152"><ele>335.6666666666667</ele><time>2026-03-30T10:12:54Z</time></trkpt><trkpt lat="41.78476562589318" lon="1.102068770900483"><ele>336.0</ele><time>2026-03-30T10:12:56Z</time></trkpt><trkpt lat="41.78479706430345" lon="1.1019882498784912"><ele>336.3333333333333</ele><time>2026-03-30T10:12:59Z</time></trkpt><trkpt lat="41.78484866894015" lon="1.1018859633222002"><ele>336.66666666666663</ele><time>2026-03-30T10:13:07Z</time></trkpt><trkpt lat="41.784890856321645" lon="1.1017950025155014"><ele>337.0</ele><time>2026-03-30T10:13:09Z</time></trkpt><trkpt lat="41.78493091809685" lon="1.1016958496186886"><ele>337.0</ele><time>2026-03-30T10:13:11Z</time></trkpt><trkpt lat="41.78498662043773" lon="1.1015794413725268"><ele>337.0</ele><time>2026-03-30T10:13:13Z</time></trkpt><trkpt lat="41.78502188251343" lon="1.101502693376373"><ele>337.0</ele><time>2026-03-30T10:13:14Z</time></trkpt><trkpt lat="41.785058537847405" lon="1.1014318503451366"><ele>337.0</ele><time>2026-03-30T10:13:15Z</time></trkpt><trkpt lat="41.78509381980679" lon="1.1013534903523885"><ele>337.0</ele><time>2026-03-30T10:13:16Z</time></trkpt><trkpt lat="41.785129681390124" lon="1.1012724210974427"><ele>337.0</ele><time>2026-03-30T10:13:17Z</time></trkpt><trkpt lat="41.78518863388084" lon="1.1011408217649354"><ele>337.3333333333333</ele><time>2026-03-30T10:13:19Z</time></trkpt><trkpt lat="41.7852404841933" lon="1.1010177186434649"><ele>337.66666666666663</ele><time>2026-03-30T10:13:21Z</time></trkpt><trkpt lat="41.78528496195828" lon="1.1009377240143448"><ele>338.0</ele><time>2026-03-30T10:13:22Z</time></trkpt><trkpt lat="41.785323708293305" lon="1.1008581768334313"><ele>338.3333333333333</ele><time>2026-03-30T10:13:23Z</time></trkpt><trkpt lat="41.78537006127723" lon="1.1007602438157118"><ele>338.6666666666667</ele><time>2026-03-30T10:13:24Z</time></trkpt><trkpt lat="41.78541723024788" lon="1.100644548647782"><ele>339.0</ele><time>2026-03-30T10:13:25Z</time></trkpt><trkpt lat="41.78546750935193" lon="1.1005399736466999"><ele>339.0</ele><time>2026-03-30T10:13:26Z</time></trkpt><trkpt lat="41.785511306796174" lon="1.1004459029257319"><ele>339.0</ele><time>2026-03-30T10:13:27Z</time></trkpt><trkpt lat="41.78555283066692" lon="1.1003434266138132"><ele>339.0</ele><time>2026-03-30T10:13:28Z</time></trkpt><trkpt lat="41.78559726555569" lon="1.1002498178788167"><ele>339.0</ele><time>2026-03-30T10:13:29Z</time></trkpt><trkpt lat="41.78564344285668" lon="1.100160208613937"><ele>339.0</ele><time>2026-03-30T10:13:30Z</time></trkpt><trkpt lat="41.78568137736409" lon="1.1000636814661522"><ele>339.0</ele><time>2026-03-30T10:13:31Z</time></trkpt><trkpt lat="41.785720050284134" lon="1.0999851175944926"><ele>338.4</ele><time>2026-03-30T10:13:32Z</time></trkpt><trkpt lat="41.785783058585274" lon="1.0998527362195243"><ele>337.79999999999995</ele><time>2026-03-30T10:13:34Z</time></trkpt><trkpt lat="41.78583594867797" lon="1.0997381930693872"><ele>337.20000000000005</ele><time>2026-03-30T10:13:36Z</time></trkpt><trkpt lat="41.78587637999231" lon="1.0996369651226927"><ele>336.6</ele><time>2026-03-30T10:13:38Z</time></trkpt><trkpt lat="41.785941029123855" lon="1.0995349657345808"><ele>336.0</ele><time>2026-03-30T10:13:40Z</time></trkpt><trkpt lat="41.78596633240254" lon="1.099445685277213"><ele>337.6</ele><time>2026-03-30T10:13:41Z</time></trkpt><trkpt lat="41.78603099161322" lon="1.0993072784717146"><ele>339.20000000000005</ele><time>2026-03-30T10:13:43Z</time></trkpt><trkpt lat="41.78606511482709" lon="1.0992307796491376"><ele>340.79999999999995</ele><time>2026-03-30T10:13:44Z</time></trkpt><trkpt lat="41.78613596522581" lon="1.099093171173924"><ele>342.4</ele><time>2026-03-30T10:13:46Z</time></trkpt><trkpt lat="41.786110733079916" lon="1.0990081614955163"><ele>344.0</ele><time>2026-03-30T10:13:47Z</time></trkpt><trkpt lat="41.78612355541056" lon="1.0989155036238059"><ele>344.0</ele><time>2026-03-30T10:13:51Z</time></trkpt><trkpt lat="41.78612110630164" lon="1.0988282248839985"><ele>344.0</ele><time>2026-03-30T10:13:53Z</time></trkpt><trkpt lat="41.78610498440769" lon="1.0987300188610944"><ele>344.0</ele><time>2026-03-30T10:13:56Z</time></trkpt><trkpt lat="41.786098396086025" lon="1.0986428659837355"><ele>344.0</ele><time>2026-03-30T10:14:09Z</time></trkpt><trkpt lat="41.786095508445996" lon="1.098538123986451"><ele>344.0</ele><time>2026-03-30T10:14:12Z</time></trkpt><trkpt lat="41.786105694128366" lon="1.098438398055847"><ele>344.0</ele><time>2026-03-30T10:14:24Z</time></trkpt><trkpt lat="41.786099054044456" lon="1.0982747042134702"><ele>343.83333333333337</ele><time>2026-03-30T10:14:26Z</time></trkpt><trkpt lat="41.786095491799294" lon="1.09818688655377"><ele>343.6666666666667</ele><time>2026-03-30T10:14:27Z</time></trkpt><trkpt lat="41.78609179953937" lon="1.098089112064997"><ele>343.5</ele><time>2026-03-30T10:14:29Z</time></trkpt><trkpt lat="41.78608762610379" lon="1.0979480498815068"><ele>343.3333333333333</ele><time>2026-03-30T10:14:36Z</time></trkpt><trkpt lat="41.78608533985618" lon="1.0978210451972066"><ele>343.16666666666663</ele><time>2026-03-30T10:14:38Z</time></trkpt><trkpt lat="41.78608364527243" lon="1.0977255976124294"><ele>343.0</ele><time>2026-03-30T10:14:40Z</time></trkpt><trkpt lat="41.78615187022916" lon="1.09772733540983"><ele>343.0</ele><time>2026-03-30T10:14:45Z</time></trkpt><trkpt lat="41.78608369189511" lon="1.0976668429669982"><ele>343.0</ele><time>2026-03-30T10:15:54Z</time></trkpt><trkpt lat="41.78612323325345" lon="1.0976010647807457"><ele>343.0</ele><time>2026-03-30T10:31:48Z</time></trkpt><trkpt lat="41.78604682384813" lon="1.0975966409704028"><ele>343.0</ele><time>2026-03-30T10:32:05Z</time></trkpt><trkpt lat="41.78605426116651" lon="1.097687415946158"><ele>343.0</ele><time>2026-03-30T10:32:12Z</time></trkpt><trkpt lat="41.78612156820712" lon="1.097717669398405"><ele>343.0</ele><time>2026-03-30T10:32:15Z</time></trkpt><trkpt lat="41.786172193021144" lon="1.0976520477133185"><ele>343.0</ele><time>2026-03-30T10:32:22Z</time></trkpt><trkpt lat="41.78610126635781" lon="1.0976243355587683"><ele>343.0</ele><time>2026-03-30T10:32:33Z</time></trkpt><trkpt lat="41.78604167796013" lon="1.0975809066545477"><ele>343.0</ele><time>2026-03-30T10:32:43.975Z</time></trkpt><trkpt lat="41.78605572366037" lon="1.097666041289997"><ele>343.0</ele><time>2026-03-30T10:33:29.4Z</time></trkpt><trkpt lat="41.78616296361404" lon="1.097717637786178"><ele>343.0</ele><time>2026-03-30T10:49:03Z</time></trkpt><trkpt lat="41.7862926662218" lon="1.097750830781566"><ele>343.0</ele><time>2026-03-30T10:49:05Z</time></trkpt><trkpt lat="41.78623559282088" lon="1.0978395467049327"><ele>343.0</ele><time>2026-03-30T10:49:11Z</time></trkpt><trkpt lat="41.78623313675589" lon="1.0977408856671327"><ele>343.0</ele><time>2026-03-30T10:49:22Z</time></trkpt><trkpt lat="41.786170961816396" lon="1.0976830284735017"><ele>343.0</ele><time>2026-03-30T10:49:27Z</time></trkpt><trkpt lat="41.78610952489277" lon="1.0976638227070592"><ele>343.0</ele><time>2026-03-30T10:49:32Z</time></trkpt><trkpt lat="41.786114831048586" lon="1.0975783310737461"><ele>343.0</ele><time>2026-03-30T10:51:20Z</time></trkpt><trkpt lat="41.78607148238837" lon="1.097497448033513"><ele>343.0</ele><time>2026-03-30T10:51:43Z</time></trkpt><trkpt lat="41.78602562983349" lon="1.0975685887827678"><ele>343.0</ele><time>2026-03-30T10:51:53Z</time></trkpt><trkpt lat="41.786090600820145" lon="1.0975916572758972"><ele>343.0</ele><time>2026-03-30T10:52:23Z</time></trkpt><trkpt lat="41.78605380629188" lon="1.0976606319714683"><ele>343.0</ele><time>2026-03-30T10:54:15Z</time></trkpt><trkpt lat="41.78610907397923" lon="1.0977090975164276"><ele>343.0</ele><time>2026-03-30T11:22:17Z</time></trkpt><trkpt lat="41.78630691752467" lon="1.0977215238227624"><ele>343.0</ele><time>2026-03-30T11:25:06Z</time></trkpt><trkpt lat="41.786248760924856" lon="1.0976618403125435"><ele>343.0</ele><time>2026-03-30T11:25:18Z</time></trkpt><trkpt lat="41.786171107649686" lon="1.0976720971654088"><ele>343.0</ele><time>2026-03-30T11:25:21Z</time></trkpt><trkpt lat="41.786100162119816" lon="1.0977279687343573"><ele>343.0</ele><time>2026-03-30T11:26:58Z</time></trkpt><trkpt lat="41.78603515307464" lon="1.0977016023639574"><ele>343.0</ele><time>2026-03-30T11:27:36Z</time></trkpt><trkpt lat="41.786055196231786" lon="1.0975471486527035"><ele>343.0</ele><time>2026-03-30T11:27:38Z</time></trkpt><trkpt lat="41.78605940977818" lon="1.0974519581612017"><ele>343.0</ele><time>2026-03-30T11:27:39Z</time></trkpt><trkpt lat="41.78606452505507" lon="1.0973373185039406"><ele>343.0</ele><time>2026-03-30T11:27:40Z</time></trkpt><trkpt lat="41.786072646534514" lon="1.0972081510610314"><ele>342.8333333333333</ele><time>2026-03-30T11:27:41Z</time></trkpt><trkpt lat="41.7860789469186" lon="1.0970924247957894"><ele>342.66666666666663</ele><time>2026-03-30T11:27:42Z</time></trkpt><trkpt lat="41.78608197552735" lon="1.0969916409418394"><ele>342.5</ele><time>2026-03-30T11:27:43Z</time></trkpt><trkpt lat="41.786084084444084" lon="1.096894033101242"><ele>342.3333333333333</ele><time>2026-03-30T11:27:44Z</time></trkpt><trkpt lat="41.786085888014426" lon="1.096753368830352"><ele>342.1666666666667</ele><time>2026-03-30T11:27:46Z</time></trkpt><trkpt lat="41.78608527229976" lon="1.0966190796149982"><ele>342.0</ele><time>2026-03-30T11:27:48Z</time></trkpt><trkpt lat="41.78608720125184" lon="1.0964720408924826"><ele>342.0</ele><time>2026-03-30T11:27:50Z</time></trkpt><trkpt lat="41.786085268305285" lon="1.0963801552987298"><ele>342.0</ele><time>2026-03-30T11:27:51Z</time></trkpt><trkpt lat="41.78608245286541" lon="1.0962803953601294"><ele>342.0</ele><time>2026-03-30T11:27:52Z</time></trkpt><trkpt lat="41.78608100251615" lon="1.0961667257397554"><ele>342.0</ele><time>2026-03-30T11:27:53Z</time></trkpt><trkpt lat="41.78608246624013" lon="1.096061148232058"><ele>342.0</ele><time>2026-03-30T11:27:54Z</time></trkpt><trkpt lat="41.786083314821894" lon="1.0959597926448659"><ele>342.0</ele><time>2026-03-30T11:27:55Z</time></trkpt><trkpt lat="41.786083140571925" lon="1.0958517269408556"><ele>340.8</ele><time>2026-03-30T11:27:56Z</time></trkpt><trkpt lat="41.786084953953385" lon="1.0957336156271111"><ele>339.6</ele><time>2026-03-30T11:27:57Z</time></trkpt><trkpt lat="41.7860893957965" lon="1.0956035894850018"><ele>338.40000000000003</ele><time>2026-03-30T11:27:58Z</time></trkpt><trkpt lat="41.78609271448747" lon="1.095467504414502"><ele>337.20000000000005</ele><time>2026-03-30T11:27:59Z</time></trkpt><trkpt lat="41.78610335300171" lon="1.095323648280702"><ele>336.0</ele><time>2026-03-30T11:28:00Z</time></trkpt><trkpt lat="41.78611821562299" lon="1.0951949531004406"><ele>336.0</ele><time>2026-03-30T11:28:01Z</time></trkpt><trkpt lat="41.78613527538859" lon="1.0950787313044223"><ele>336.0</ele><time>2026-03-30T11:28:02Z</time></trkpt><trkpt lat="41.78615562587141" lon="1.0949668201442047"><ele>336.0</ele><time>2026-03-30T11:28:03Z</time></trkpt><trkpt lat="41.78617837496876" lon="1.0948588682339813"><ele>336.0</ele><time>2026-03-30T11:28:04Z</time></trkpt><trkpt lat="41.78619704821018" lon="1.094770502830128"><ele>336.0</ele><time>2026-03-30T11:28:05Z</time></trkpt><trkpt lat="41.78621409272874" lon="1.0946802687206483"><ele>336.0</ele><time>2026-03-30T11:28:06Z</time></trkpt><trkpt lat="41.786237788826725" lon="1.0945566430736422"><ele>335.85714285714283</ele><time>2026-03-30T11:28:08Z</time></trkpt><trkpt lat="41.78626910829813" lon="1.09441543236847"><ele>335.7142857142857</ele><time>2026-03-30T11:28:10Z</time></trkpt><trkpt lat="41.78628296595914" lon="1.0943296650657823"><ele>335.57142857142856</ele><time>2026-03-30T11:28:11Z</time></trkpt><trkpt lat="41.786295240817374" lon="1.0942393394062222"><ele>335.42857142857144</ele><time>2026-03-30T11:28:12Z</time></trkpt><trkpt lat="41.78631522692073" lon="1.0941495072566665"><ele>335.2857142857143</ele><time>2026-03-30T11:28:13Z</time></trkpt><trkpt lat="41.786336082605075" lon="1.094066706740508"><ele>335.1428571428571</ele><time>2026-03-30T11:28:14Z</time></trkpt><trkpt lat="41.78635207873508" lon="1.0939819574875211"><ele>335.0</ele><time>2026-03-30T11:28:15Z</time></trkpt><trkpt lat="41.78636878327901" lon="1.0938896924787527"><ele>335.0</ele><time>2026-03-30T11:28:16Z</time></trkpt><trkpt lat="41.786385591844976" lon="1.0938062917351896"><ele>335.0</ele><time>2026-03-30T11:28:17Z</time></trkpt><trkpt lat="41.78641279643782" lon="1.0936752593950316"><ele>335.0</ele><time>2026-03-30T11:28:19Z</time></trkpt><trkpt lat="41.78644509842598" lon="1.0935058129415622"><ele>335.0</ele><time>2026-03-30T11:28:21Z</time></trkpt><trkpt lat="41.78646624068956" lon="1.093406047355993"><ele>335.0</ele><time>2026-03-30T11:28:22Z</time></trkpt><trkpt lat="41.78648872400844" lon="1.0933102138128548"><ele>335.0</ele><time>2026-03-30T11:28:23Z</time></trkpt><trkpt lat="41.78651467844961" lon="1.0931569960934215"><ele>334.8</ele><time>2026-03-30T11:28:25Z</time></trkpt><trkpt lat="41.786550617516404" lon="1.0929999353843238"><ele>334.6</ele><time>2026-03-30T11:28:27Z</time></trkpt><trkpt lat="41.786592042698906" lon="1.092904075523684"><ele>334.4</ele><time>2026-03-30T11:28:29Z</time></trkpt><trkpt lat="41.78666850573876" lon="1.0928492545291704"><ele>334.2</ele><time>2026-03-30T11:28:32Z</time></trkpt><trkpt lat="41.786759768243" lon="1.0928293699057956"><ele>334.0</ele><time>2026-03-30T11:28:33Z</time></trkpt><trkpt lat="41.78683791485279" lon="1.092863564989969"><ele>334.6</ele><time>2026-03-30T11:28:34Z</time></trkpt><trkpt lat="41.786914572254595" lon="1.092892814779599"><ele>335.2</ele><time>2026-03-30T11:28:35Z</time></trkpt><trkpt lat="41.78700147181623" lon="1.0927875647184337"><ele>335.8</ele><time>2026-03-30T11:28:37Z</time></trkpt><trkpt lat="41.78694484638668" lon="1.0926895694572742"><ele>336.40000000000003</ele><time>2026-03-30T11:28:38Z</time></trkpt><trkpt lat="41.78694608837315" lon="1.0925938781019116"><ele>337.0</ele><time>2026-03-30T11:28:39Z</time></trkpt><trkpt lat="41.786895559402915" lon="1.092478723444268"><ele>336.25</ele><time>2026-03-30T11:28:40Z</time></trkpt><trkpt lat="41.78689242433093" lon="1.092326429421794"><ele>335.5</ele><time>2026-03-30T11:28:41Z</time></trkpt><trkpt lat="41.78689929823254" lon="1.0921558305939802"><ele>334.75</ele><time>2026-03-30T11:28:42Z</time></trkpt><trkpt lat="41.78689180864648" lon="1.0919857033115568"><ele>334.0</ele><time>2026-03-30T11:28:43Z</time></trkpt><trkpt lat="41.786897843308275" lon="1.0918259022550019"><ele>334.0</ele><time>2026-03-30T11:28:44Z</time></trkpt><trkpt lat="41.78690345166738" lon="1.091665142359635"><ele>334.0</ele><time>2026-03-30T11:28:45Z</time></trkpt><trkpt lat="41.786908533333595" lon="1.0914889342579317"><ele>334.0</ele><time>2026-03-30T11:28:46Z</time></trkpt><trkpt lat="41.78691730597987" lon="1.0913002262385347"><ele>334.0</ele><time>2026-03-30T11:28:47Z</time></trkpt><trkpt lat="41.786927496076366" lon="1.0911113240272587"><ele>333.25</ele><time>2026-03-30T11:28:48Z</time></trkpt><trkpt lat="41.786934622466845" lon="1.0909229851809354"><ele>332.5</ele><time>2026-03-30T11:28:49Z</time></trkpt><trkpt lat="41.78693738787637" lon="1.0907383305617704"><ele>331.75</ele><time>2026-03-30T11:28:50Z</time></trkpt><trkpt lat="41.78694023506518" lon="1.0905498155013955"><ele>331.0</ele><time>2026-03-30T11:28:51Z</time></trkpt><trkpt lat="41.78694293124785" lon="1.0903562572066416"><ele>331.0</ele><time>2026-03-30T11:28:52Z</time></trkpt><trkpt lat="41.78695208636656" lon="1.0901597816523474"><ele>331.0</ele><time>2026-03-30T11:28:53Z</time></trkpt><trkpt lat="41.786964025635974" lon="1.0899646204825535"><ele>331.0</ele><time>2026-03-30T11:28:54Z</time></trkpt><trkpt lat="41.78697901392733" lon="1.0897589441642042"><ele>331.0</ele><time>2026-03-30T11:28:55Z</time></trkpt><trkpt lat="41.78698820023757" lon="1.0895408682660062"><ele>330.66666666666663</ele><time>2026-03-30T11:28:56Z</time></trkpt><trkpt lat="41.78699363351915" lon="1.0893171702090172"><ele>330.3333333333333</ele><time>2026-03-30T11:28:57Z</time></trkpt><trkpt lat="41.787005462650384" lon="1.089081839558138"><ele>330.0</ele><time>2026-03-30T11:28:58Z</time></trkpt><trkpt lat="41.78702156430737" lon="1.0888449840400998"><ele>329.0</ele><time>2026-03-30T11:28:59Z</time></trkpt><trkpt lat="41.787044555470004" lon="1.0886028374950667"><ele>328.0</ele><time>2026-03-30T11:29:00Z</time></trkpt><trkpt lat="41.78707818917174" lon="1.0883646061813703"><ele>327.0</ele><time>2026-03-30T11:29:01Z</time></trkpt><trkpt lat="41.787128772191764" lon="1.0881260084162223"><ele>327.0</ele><time>2026-03-30T11:29:02Z</time></trkpt><trkpt lat="41.78718309648594" lon="1.0878877631711257"><ele>327.0</ele><time>2026-03-30T11:29:03Z</time></trkpt><trkpt lat="41.78723403533892" lon="1.0876472015001108"><ele>327.0</ele><time>2026-03-30T11:29:04Z</time></trkpt><trkpt lat="41.78728498341595" lon="1.087409095250491"><ele>327.0</ele><time>2026-03-30T11:29:05Z</time></trkpt><trkpt lat="41.78734235388938" lon="1.0871685620554636"><ele>327.0</ele><time>2026-03-30T11:29:06Z</time></trkpt><trkpt lat="41.78740362861243" lon="1.0869200462321351"><ele>327.0</ele><time>2026-03-30T11:29:07Z</time></trkpt><trkpt lat="41.78746478915387" lon="1.0866698254180032"><ele>327.0</ele><time>2026-03-30T11:29:08Z</time></trkpt><trkpt lat="41.787523358468086" lon="1.0864004234292974"><ele>327.0</ele><time>2026-03-30T11:29:09Z</time></trkpt><trkpt lat="41.787575800833444" lon="1.08612295346361"><ele>327.0</ele><time>2026-03-30T11:29:10Z</time></trkpt><trkpt lat="41.78762416214941" lon="1.0858412501101458"><ele>326.6666666666667</ele><time>2026-03-30T11:29:11Z</time></trkpt><trkpt lat="41.78767082283289" lon="1.0855689961228379"><ele>326.33333333333337</ele><time>2026-03-30T11:29:12Z</time></trkpt><trkpt lat="41.78771080062447" lon="1.085299612895505"><ele>326.0</ele><time>2026-03-30T11:29:13Z</time></trkpt><trkpt lat="41.78774876706747" lon="1.0850227593879416"><ele>326.6666666666667</ele><time>2026-03-30T11:29:14Z</time></trkpt><trkpt lat="41.78778329775492" lon="1.0847461507177472"><ele>327.3333333333333</ele><time>2026-03-30T11:29:15Z</time></trkpt><trkpt lat="41.78781761417682" lon="1.0844704149167803"><ele>328.0</ele><time>2026-03-30T11:29:16Z</time></trkpt><trkpt lat="41.7878511990187" lon="1.0841998272737956"><ele>327.3333333333333</ele><time>2026-03-30T11:29:17Z</time></trkpt><trkpt lat="41.78788484602716" lon="1.0839245059330846"><ele>326.6666666666667</ele><time>2026-03-30T11:29:18Z</time></trkpt><trkpt lat="41.78791557266857" lon="1.0836473447460047"><ele>326.0</ele><time>2026-03-30T11:29:19Z</time></trkpt><trkpt lat="41.78794130460516" lon="1.0833741637274215"><ele>325.33333333333337</ele><time>2026-03-30T11:29:20Z</time></trkpt><trkpt lat="41.78796035709147" lon="1.0830910002659373"><ele>324.6666666666667</ele><time>2026-03-30T11:29:21Z</time></trkpt><trkpt lat="41.78796910542678" lon="1.0828123901638207"><ele>324.0</ele><time>2026-03-30T11:29:22Z</time></trkpt><trkpt lat="41.78796738704134" lon="1.082531210601492"><ele>323.6666666666667</ele><time>2026-03-30T11:29:23Z</time></trkpt><trkpt lat="41.78795848578059" lon="1.082250434178518"><ele>323.33333333333337</ele><time>2026-03-30T11:29:24Z</time></trkpt><trkpt lat="41.78794177820334" lon="1.0819438483653965"><ele>323.0</ele><time>2026-03-30T11:29:25Z</time></trkpt><trkpt lat="41.787909210868015" lon="1.081635447080442"><ele>322.0</ele><time>2026-03-30T11:29:26Z</time></trkpt><trkpt lat="41.78786407604091" lon="1.0813247499080942"><ele>321.0</ele><time>2026-03-30T11:29:27Z</time></trkpt><trkpt lat="41.78780236734338" lon="1.0810162259315308"><ele>322.0</ele><time>2026-03-30T11:29:28Z</time></trkpt><trkpt lat="41.78773660330534" lon="1.0807194349913825"><ele>323.0</ele><time>2026-03-30T11:29:29Z</time></trkpt><trkpt lat="41.7876614972329" lon="1.0804344958133456"><ele>323.0</ele><time>2026-03-30T11:29:30Z</time></trkpt><trkpt lat="41.787578411917835" lon="1.0801528814286072"><ele>323.0</ele><time>2026-03-30T11:29:31Z</time></trkpt><trkpt lat="41.78750042903889" lon="1.079886298079187"><ele>323.0</ele><time>2026-03-30T11:29:32Z</time></trkpt><trkpt lat="41.78743120916613" lon="1.0796182178926321"><ele>323.33333333333337</ele><time>2026-03-30T11:29:33Z</time></trkpt><trkpt lat="41.78736735781834" lon="1.0793507738753545"><ele>323.6666666666667</ele><time>2026-03-30T11:29:34Z</time></trkpt><trkpt lat="41.787311450903395" lon="1.079082232238278"><ele>324.0</ele><time>2026-03-30T11:29:35Z</time></trkpt><trkpt lat="41.78727462089531" lon="1.0788016393911932"><ele>324.3333333333333</ele><time>2026-03-30T11:29:36Z</time></trkpt><trkpt lat="41.78725602009872" lon="1.078514697547778"><ele>324.66666666666663</ele><time>2026-03-30T11:29:37Z</time></trkpt><trkpt lat="41.78725583764767" lon="1.0782225072650293"><ele>325.0</ele><time>2026-03-30T11:29:38Z</time></trkpt><trkpt lat="41.78726932681798" lon="1.077929180331352"><ele>325.0</ele><time>2026-03-30T11:29:39Z</time></trkpt><trkpt lat="41.78729776444076" lon="1.0776387899528657"><ele>325.0</ele><time>2026-03-30T11:29:40Z</time></trkpt><trkpt lat="41.787343258226414" lon="1.0773548161238937"><ele>325.0</ele><time>2026-03-30T11:29:41Z</time></trkpt><trkpt lat="41.78739969314939" lon="1.0770810791415188"><ele>325.0</ele><time>2026-03-30T11:29:42Z</time></trkpt><trkpt lat="41.78745190804119" lon="1.0768029320920751"><ele>325.0</ele><time>2026-03-30T11:29:43Z</time></trkpt><trkpt lat="41.78750445173505" lon="1.0765178781889102"><ele>325.0</ele><time>2026-03-30T11:29:44Z</time></trkpt><trkpt lat="41.787556571029164" lon="1.0762241025091515"><ele>325.0</ele><time>2026-03-30T11:29:45Z</time></trkpt><trkpt lat="41.78761123422995" lon="1.0759120243172262"><ele>325.0</ele><time>2026-03-30T11:29:46Z</time></trkpt><trkpt lat="41.7876698405389" lon="1.075584607959846"><ele>325.0</ele><time>2026-03-30T11:29:47Z</time></trkpt><trkpt lat="41.78772994624939" lon="1.0752510236397075"><ele>325.0</ele><time>2026-03-30T11:29:48Z</time></trkpt><trkpt lat="41.787793797104996" lon="1.0749293993178757"><ele>325.0</ele><time>2026-03-30T11:29:49Z</time></trkpt><trkpt lat="41.78786158066878" lon="1.0746160458051681"><ele>325.0</ele><time>2026-03-30T11:29:50Z</time></trkpt><trkpt lat="41.78793437659587" lon="1.074301469835035"><ele>324.5</ele><time>2026-03-30T11:29:51Z</time></trkpt><trkpt lat="41.78801088561168" lon="1.0739877448892148"><ele>324.0</ele><time>2026-03-30T11:29:52Z</time></trkpt><trkpt lat="41.7880858680366" lon="1.0736768641817254"><ele>324.0</ele><time>2026-03-30T11:29:53Z</time></trkpt><trkpt lat="41.788157935748075" lon="1.073363541316128"><ele>324.0</ele><time>2026-03-30T11:29:54Z</time></trkpt><trkpt lat="41.78823219822091" lon="1.0730501940085708"><ele>324.0</ele><time>2026-03-30T11:29:55Z</time></trkpt><trkpt lat="41.78830486523503" lon="1.0727425060034688"><ele>324.0</ele><time>2026-03-30T11:29:56Z</time></trkpt><trkpt lat="41.788375873291834" lon="1.0724325902280156"><ele>323.5</ele><time>2026-03-30T11:29:57Z</time></trkpt><trkpt lat="41.78844867187304" lon="1.0721259733050148"><ele>323.0</ele><time>2026-03-30T11:29:58Z</time></trkpt><trkpt lat="41.78852322232407" lon="1.0718162045877762"><ele>322.0</ele><time>2026-03-30T11:29:59Z</time></trkpt><trkpt lat="41.78858914433145" lon="1.0715150714948145"><ele>321.0</ele><time>2026-03-30T11:30:00Z</time></trkpt><trkpt lat="41.78864978875814" lon="1.0712118757823321"><ele>321.0</ele><time>2026-03-30T11:30:01Z</time></trkpt><trkpt lat="41.788708427865224" lon="1.0709110769833106"><ele>321.0</ele><time>2026-03-30T11:30:02Z</time></trkpt><trkpt lat="41.78875969681119" lon="1.070610991912646"><ele>321.5</ele><time>2026-03-30T11:30:03Z</time></trkpt><trkpt lat="41.78879301335266" lon="1.0703020161142949"><ele>322.0</ele><time>2026-03-30T11:30:04Z</time></trkpt><trkpt lat="41.788814645061" lon="1.0699865030375248"><ele>320.5</ele><time>2026-03-30T11:30:05Z</time></trkpt><trkpt lat="41.78883786117289" lon="1.069670431249827"><ele>319.0</ele><time>2026-03-30T11:30:06Z</time></trkpt><trkpt lat="41.788865514369725" lon="1.0693575608127517"><ele>320.0</ele><time>2026-03-30T11:30:07Z</time></trkpt><trkpt lat="41.78889584923667" lon="1.0690391658540277"><ele>321.0</ele><time>2026-03-30T11:30:08Z</time></trkpt><trkpt lat="41.78892002230085" lon="1.0687241227312296"><ele>321.0</ele><time>2026-03-30T11:30:09Z</time></trkpt><trkpt lat="41.78894366242406" lon="1.06840930338685"><ele>321.0</ele><time>2026-03-30T11:30:10Z</time></trkpt><trkpt lat="41.78897072616739" lon="1.0680782922811174"><ele>320.5</ele><time>2026-03-30T11:30:11Z</time></trkpt><trkpt lat="41.789004452199194" lon="1.0677457552499177"><ele>320.0</ele><time>2026-03-30T11:30:12Z</time></trkpt><trkpt lat="41.78903521545156" lon="1.067411312131039"><ele>319.5</ele><time>2026-03-30T11:30:13Z</time></trkpt><trkpt lat="41.7890649299262" lon="1.0670872345883462"><ele>319.0</ele><time>2026-03-30T11:30:14Z</time></trkpt><trkpt lat="41.789090703463216" lon="1.0667552351474898"><ele>321.0</ele><time>2026-03-30T11:30:15Z</time></trkpt><trkpt lat="41.78911747020822" lon="1.066422344917744"><ele>323.0</ele><time>2026-03-30T11:30:16Z</time></trkpt><trkpt lat="41.78914883843104" lon="1.0660969618698166"><ele>323.0</ele><time>2026-03-30T11:30:17Z</time></trkpt><trkpt lat="41.789175928527285" lon="1.06577049225889"><ele>323.0</ele><time>2026-03-30T11:30:18Z</time></trkpt><trkpt lat="41.78919534108532" lon="1.0654456400319694"><ele>323.0</ele><time>2026-03-30T11:30:19Z</time></trkpt><trkpt lat="41.7892004169891" lon="1.065118081385169"><ele>323.0</ele><time>2026-03-30T11:30:20Z</time></trkpt><trkpt lat="41.789227054876996" lon="1.0647991419493763"><ele>321.5</ele><time>2026-03-30T11:30:21Z</time></trkpt><trkpt lat="41.78924292294163" lon="1.0644813983954378"><ele>320.0</ele><time>2026-03-30T11:30:22Z</time></trkpt><trkpt lat="41.78914706507641" lon="1.0641532011066517"><ele>319.0</ele><time>2026-03-30T11:30:23Z</time></trkpt><trkpt lat="41.789114866717256" lon="1.063828978016237"><ele>318.0</ele><time>2026-03-30T11:30:24Z</time></trkpt><trkpt lat="41.78908067467897" lon="1.0634981257201932"><ele>318.0</ele><time>2026-03-30T11:30:25Z</time></trkpt><trkpt lat="41.78904232856153" lon="1.0631515716762858"><ele>318.0</ele><time>2026-03-30T11:30:26Z</time></trkpt><trkpt lat="41.78901257685647" lon="1.0628642554240186"><ele>318.0</ele><time>2026-03-30T11:30:27Z</time></trkpt><trkpt lat="41.7889765677121" lon="1.0625164825060298"><ele>318.0</ele><time>2026-03-30T11:30:28Z</time></trkpt><trkpt lat="41.788941862098625" lon="1.0621661237509203"><ele>317.0</ele><time>2026-03-30T11:30:29Z</time></trkpt><trkpt lat="41.788907893556306" lon="1.061822476577446"><ele>316.0</ele><time>2026-03-30T11:30:30Z</time></trkpt><trkpt lat="41.78887277481349" lon="1.0614897671427417"><ele>315.0</ele><time>2026-03-30T11:30:31Z</time></trkpt><trkpt lat="41.788839527018766" lon="1.0611722824894816"><ele>314.0</ele><time>2026-03-30T11:30:32Z</time></trkpt><trkpt lat="41.78880843113486" lon="1.0608603354712864"><ele>314.0</ele><time>2026-03-30T11:30:33Z</time></trkpt><trkpt lat="41.788778753897574" lon="1.0605457038901525"><ele>314.0</ele><time>2026-03-30T11:30:34Z</time></trkpt><trkpt lat="41.7887519514438" lon="1.0602264185592376"><ele>314.0</ele><time>2026-03-30T11:30:35Z</time></trkpt><trkpt lat="41.78871822854621" lon="1.0599522160731358"><ele>314.0</ele><time>2026-03-30T11:30:36Z</time></trkpt><trkpt lat="41.78869251809288" lon="1.0596432468519148"><ele>314.0</ele><time>2026-03-30T11:30:37Z</time></trkpt><trkpt lat="41.78867604742836" lon="1.0593338045890275"><ele>312.5</ele><time>2026-03-30T11:30:38Z</time></trkpt><trkpt lat="41.788651195229846" lon="1.0590327970854794"><ele>311.0</ele><time>2026-03-30T11:30:39Z</time></trkpt><trkpt lat="41.788629737838505" lon="1.0587263474698405"><ele>311.0</ele><time>2026-03-30T11:30:40Z</time></trkpt><trkpt lat="41.788609855939704" lon="1.058419174553571"><ele>311.0</ele><time>2026-03-30T11:30:41Z</time></trkpt><trkpt lat="41.78858935267314" lon="1.0580806885441842"><ele>311.5</ele><time>2026-03-30T11:30:42Z</time></trkpt><trkpt lat="41.78857692061426" lon="1.0577675966494167"><ele>312.0</ele><time>2026-03-30T11:30:43Z</time></trkpt><trkpt lat="41.788568431669084" lon="1.0574554385909547"><ele>312.5</ele><time>2026-03-30T11:30:44Z</time></trkpt><trkpt lat="41.78855864911224" lon="1.0571340618845078"><ele>313.0</ele><time>2026-03-30T11:30:45Z</time></trkpt><trkpt lat="41.788551095447666" lon="1.0568119717222184"><ele>312.0</ele><time>2026-03-30T11:30:46Z</time></trkpt><trkpt lat="41.788546132999194" lon="1.0564896307899434"><ele>311.0</ele><time>2026-03-30T11:30:47Z</time></trkpt><trkpt lat="41.78853343334109" lon="1.056164778910778"><ele>311.0</ele><time>2026-03-30T11:30:48Z</time></trkpt><trkpt lat="41.78852896800085" lon="1.0558328039111804"><ele>311.0</ele><time>2026-03-30T11:30:49Z</time></trkpt><trkpt lat="41.78852812493106" lon="1.0554879523763914"><ele>311.0</ele><time>2026-03-30T11:30:50Z</time></trkpt><trkpt lat="41.788528771982186" lon="1.0551300057197355"><ele>311.0</ele><time>2026-03-30T11:30:51Z</time></trkpt><trkpt lat="41.78852761066499" lon="1.054769532354242"><ele>311.0</ele><time>2026-03-30T11:30:52Z</time></trkpt><trkpt lat="41.78852408900848" lon="1.054410895638028"><ele>311.0</ele><time>2026-03-30T11:30:53Z</time></trkpt><trkpt lat="41.788519730132364" lon="1.0540559845425168"><ele>310.0</ele><time>2026-03-30T11:30:54Z</time></trkpt><trkpt lat="41.7885152813908" lon="1.053701197928266"><ele>309.0</ele><time>2026-03-30T11:30:55Z</time></trkpt><trkpt lat="41.7885123841777" lon="1.0533569563226701"><ele>309.5</ele><time>2026-03-30T11:30:56Z</time></trkpt><trkpt lat="41.78851326496383" lon="1.0530358053032345"><ele>310.0</ele><time>2026-03-30T11:30:57Z</time></trkpt><trkpt lat="41.78851698658512" lon="1.0527192399875247"><ele>310.5</ele><time>2026-03-30T11:30:58Z</time></trkpt><trkpt lat="41.788525148631656" lon="1.0523998408436956"><ele>311.0</ele><time>2026-03-30T11:30:59Z</time></trkpt><trkpt lat="41.78854716786891" lon="1.052068081137054"><ele>311.0</ele><time>2026-03-30T11:31:00Z</time></trkpt><trkpt lat="41.788593786795104" lon="1.051739439297305"><ele>311.0</ele><time>2026-03-30T11:31:01Z</time></trkpt><trkpt lat="41.78866612988257" lon="1.0514101314039528"><ele>310.5</ele><time>2026-03-30T11:31:02Z</time></trkpt><trkpt lat="41.788752654423476" lon="1.0510917540050726"><ele>310.0</ele><time>2026-03-30T11:31:03Z</time></trkpt><trkpt lat="41.78885306441184" lon="1.0507826523439845"><ele>313.0</ele><time>2026-03-30T11:31:04Z</time></trkpt><trkpt lat="41.78897631551995" lon="1.0504831204958867"><ele>316.0</ele><time>2026-03-30T11:31:05Z</time></trkpt><trkpt lat="41.78912835261824" lon="1.0501805991219908"><ele>316.5</ele><time>2026-03-30T11:31:06Z</time></trkpt><trkpt lat="41.78928484373739" lon="1.0499400667278174"><ele>317.0</ele><time>2026-03-30T11:31:07Z</time></trkpt><trkpt lat="41.78945895058164" lon="1.0497052069173407"><ele>315.0</ele><time>2026-03-30T11:31:08Z</time></trkpt><trkpt lat="41.789643356721896" lon="1.049476508895199"><ele>313.0</ele><time>2026-03-30T11:31:09Z</time></trkpt><trkpt lat="41.78984515485777" lon="1.0492773107678068"><ele>314.0</ele><time>2026-03-30T11:31:10Z</time></trkpt><trkpt lat="41.790027572655376" lon="1.0490634479535046"><ele>315.0</ele><time>2026-03-30T11:31:11Z</time></trkpt><trkpt lat="41.79020503677513" lon="1.048851045173343"><ele>315.5</ele><time>2026-03-30T11:31:12Z</time></trkpt><trkpt lat="41.790379539140176" lon="1.048637487060577"><ele>316.0</ele><time>2026-03-30T11:31:13Z</time></trkpt><trkpt lat="41.790542967277325" lon="1.0484363278940874"><ele>317.0</ele><time>2026-03-30T11:31:14Z</time></trkpt><trkpt lat="41.790697352325" lon="1.0482447617044546"><ele>318.0</ele><time>2026-03-30T11:31:15Z</time></trkpt><trkpt lat="41.79085200223313" lon="1.0480577690377322"><ele>319.0</ele><time>2026-03-30T11:31:16Z</time></trkpt><trkpt lat="41.791003778160324" lon="1.0478750978980078"><ele>318.3333333333333</ele><time>2026-03-30T11:31:17Z</time></trkpt><trkpt lat="41.791146479772884" lon="1.0477015645740395"><ele>317.6666666666667</ele><time>2026-03-30T11:31:18Z</time></trkpt><trkpt lat="41.79127259455786" lon="1.0475455382363494"><ele>317.0</ele><time>2026-03-30T11:31:19Z</time></trkpt><trkpt lat="41.7913781711828" lon="1.0474157762140661"><ele>317.0</ele><time>2026-03-30T11:31:20Z</time></trkpt><trkpt lat="41.79147321007864" lon="1.0473078768238688"><ele>317.0</ele><time>2026-03-30T11:31:21Z</time></trkpt><trkpt lat="41.79156626428285" lon="1.0472191340994614"><ele>317.0</ele><time>2026-03-30T11:31:22Z</time></trkpt><trkpt lat="41.79167111183766" lon="1.0471851070813798"><ele>317.0</ele><time>2026-03-30T11:31:23Z</time></trkpt><trkpt lat="41.791774879078524" lon="1.0471727758590912"><ele>316.75</ele><time>2026-03-30T11:31:24Z</time></trkpt><trkpt lat="41.7918856526859" lon="1.0471360272100796"><ele>316.5</ele><time>2026-03-30T11:31:25Z</time></trkpt><trkpt lat="41.791962556350015" lon="1.0470337892978472"><ele>316.25</ele><time>2026-03-30T11:31:26Z</time></trkpt><trkpt lat="41.792000264684546" lon="1.0468823589646703"><ele>316.0</ele><time>2026-03-30T11:31:27Z</time></trkpt><trkpt lat="41.792053967912565" lon="1.0466897075162211"><ele>314.3333333333333</ele><time>2026-03-30T11:31:28Z</time></trkpt><trkpt lat="41.79214013396921" lon="1.0464760965128341"><ele>312.6666666666667</ele><time>2026-03-30T11:31:29Z</time></trkpt><trkpt lat="41.792242740120734" lon="1.0462780970301524"><ele>311.0</ele><time>2026-03-30T11:31:30Z</time></trkpt><trkpt lat="41.792414112957594" lon="1.0461286438607473"><ele>311.0</ele><time>2026-03-30T11:31:31Z</time></trkpt><trkpt lat="41.79256278407683" lon="1.0459744306424317"><ele>311.0</ele><time>2026-03-30T11:31:32Z</time></trkpt><trkpt lat="41.79270799399836" lon="1.0457972075931143"><ele>311.0</ele><time>2026-03-30T11:31:33Z</time></trkpt><trkpt lat="41.79285531012185" lon="1.0456131813035048"><ele>310.33333333333337</ele><time>2026-03-30T11:31:34Z</time></trkpt><trkpt lat="41.793014018553116" lon="1.0454235571885158"><ele>309.6666666666667</ele><time>2026-03-30T11:31:35Z</time></trkpt><trkpt lat="41.793184026888085" lon="1.0452083753575754"><ele>309.0</ele><time>2026-03-30T11:31:36Z</time></trkpt><trkpt lat="41.793368252922704" lon="1.0449701159162297"><ele>308.5</ele><time>2026-03-30T11:31:37Z</time></trkpt><trkpt lat="41.793560290027" lon="1.044741371738467"><ele>308.0</ele><time>2026-03-30T11:31:38Z</time></trkpt><trkpt lat="41.793739286579466" lon="1.0445324496394386"><ele>308.0</ele><time>2026-03-30T11:31:39Z</time></trkpt><trkpt lat="41.7939156131399" lon="1.0443206585645182"><ele>308.0</ele><time>2026-03-30T11:31:40Z</time></trkpt><trkpt lat="41.79408740375031" lon="1.0441100931157452"><ele>308.0</ele><time>2026-03-30T11:31:41Z</time></trkpt><trkpt lat="41.79425971628263" lon="1.0439029713941992"><ele>308.0</ele><time>2026-03-30T11:31:42Z</time></trkpt><trkpt lat="41.794428415110694" lon="1.043699393337801"><ele>307.5</ele><time>2026-03-30T11:31:43Z</time></trkpt><trkpt lat="41.79460738239902" lon="1.0434772279348727"><ele>307.0</ele><time>2026-03-30T11:31:44Z</time></trkpt><trkpt lat="41.79479244109908" lon="1.0432429516143154"><ele>307.0</ele><time>2026-03-30T11:31:45Z</time></trkpt><trkpt lat="41.794978206349775" lon="1.0430173916825334"><ele>307.0</ele><time>2026-03-30T11:31:46Z</time></trkpt><trkpt lat="41.79515635395924" lon="1.0427931180779806"><ele>308.0</ele><time>2026-03-30T11:31:47Z</time></trkpt><trkpt lat="41.7953263426733" lon="1.0425477128032512"><ele>309.0</ele><time>2026-03-30T11:31:48Z</time></trkpt><trkpt lat="41.79549229721238" lon="1.0422821688177641"><ele>309.0</ele><time>2026-03-30T11:31:49Z</time></trkpt><trkpt lat="41.795639790609435" lon="1.041997099753125"><ele>309.0</ele><time>2026-03-30T11:31:50Z</time></trkpt><trkpt lat="41.795764417637486" lon="1.0416956804498059"><ele>309.0</ele><time>2026-03-30T11:31:51Z</time></trkpt><trkpt lat="41.795879026161344" lon="1.0413886285345293"><ele>309.0</ele><time>2026-03-30T11:31:52Z</time></trkpt><trkpt lat="41.795985352215524" lon="1.0410798501102072"><ele>311.5</ele><time>2026-03-30T11:31:53Z</time></trkpt><trkpt lat="41.796078708122046" lon="1.0407661797147878"><ele>314.0</ele><time>2026-03-30T11:31:54Z</time></trkpt><trkpt lat="41.79614505602111" lon="1.0404409762804845"><ele>314.0</ele><time>2026-03-30T11:31:55Z</time></trkpt><trkpt lat="41.796202045113745" lon="1.0401206910818221"><ele>314.0</ele><time>2026-03-30T11:31:56Z</time></trkpt><trkpt lat="41.79626369680819" lon="1.0397986646369506"><ele>311.5</ele><time>2026-03-30T11:31:57Z</time></trkpt><trkpt lat="41.79633009834014" lon="1.0394728025928837"><ele>309.0</ele><time>2026-03-30T11:31:58Z</time></trkpt><trkpt lat="41.79639627098996" lon="1.039138235022572"><ele>308.5</ele><time>2026-03-30T11:31:59Z</time></trkpt><trkpt lat="41.796471059986715" lon="1.038801347033404"><ele>308.0</ele><time>2026-03-30T11:32:00Z</time></trkpt><trkpt lat="41.796525834538045" lon="1.0384625130101108"><ele>305.5</ele><time>2026-03-30T11:32:01Z</time></trkpt><trkpt lat="41.7965939452986" lon="1.0381407112251577"><ele>303.0</ele><time>2026-03-30T11:32:02Z</time></trkpt><trkpt lat="41.79666107152054" lon="1.0378185870456433"><ele>303.0</ele><time>2026-03-30T11:32:03Z</time></trkpt><trkpt lat="41.79671839567551" lon="1.0374965341959355"><ele>303.0</ele><time>2026-03-30T11:32:04Z</time></trkpt><trkpt lat="41.79677109394055" lon="1.0371510729553923"><ele>302.5</ele><time>2026-03-30T11:32:05Z</time></trkpt><trkpt lat="41.79681628353425" lon="1.0367884486313654"><ele>302.0</ele><time>2026-03-30T11:32:06Z</time></trkpt><trkpt lat="41.79685758522889" lon="1.0364396802501672"><ele>308.5</ele><time>2026-03-30T11:32:07Z</time></trkpt><trkpt lat="41.79689126465179" lon="1.0360974189436374"><ele>315.0</ele><time>2026-03-30T11:32:08Z</time></trkpt><trkpt lat="41.79692190647297" lon="1.035755763068275"><ele>315.0</ele><time>2026-03-30T11:32:09Z</time></trkpt><trkpt lat="41.79694218623326" lon="1.035417807924094"><ele>315.0</ele><time>2026-03-30T11:32:10Z</time></trkpt><trkpt lat="41.79694865676124" lon="1.0350842886765157"><ele>315.5</ele><time>2026-03-30T11:32:11Z</time></trkpt><trkpt lat="41.79694647753822" lon="1.034752255793329"><ele>316.0</ele><time>2026-03-30T11:32:12Z</time></trkpt><trkpt lat="41.796940280393564" lon="1.0344182302184175"><ele>317.5</ele><time>2026-03-30T11:32:13Z</time></trkpt><trkpt lat="41.796926847305635" lon="1.0340791331112447"><ele>319.0</ele><time>2026-03-30T11:32:14Z</time></trkpt><trkpt lat="41.79689912635752" lon="1.0337415671040338"><ele>319.0</ele><time>2026-03-30T11:32:15Z</time></trkpt><trkpt lat="41.79684697201413" lon="1.0334232039418763"><ele>319.0</ele><time>2026-03-30T11:32:16Z</time></trkpt><trkpt lat="41.796768278139865" lon="1.033080795792324"><ele>312.5</ele><time>2026-03-30T11:32:17Z</time></trkpt><trkpt lat="41.79667768377469" lon="1.0327647328160312"><ele>306.0</ele><time>2026-03-30T11:32:18Z</time></trkpt><trkpt lat="41.796570485506486" lon="1.0324497441472387"><ele>306.0</ele><time>2026-03-30T11:32:19Z</time></trkpt><trkpt lat="41.79644772827462" lon="1.032151701530748"><ele>306.0</ele><time>2026-03-30T11:32:20Z</time></trkpt><trkpt lat="41.79631144636664" lon="1.0318678099420586"><ele>306.5</ele><time>2026-03-30T11:32:21Z</time></trkpt><trkpt lat="41.79616244018819" lon="1.0315956989938362"><ele>307.0</ele><time>2026-03-30T11:32:22Z</time></trkpt><trkpt lat="41.79602943201126" lon="1.0313196967271772"><ele>304.5</ele><time>2026-03-30T11:32:23Z</time></trkpt><trkpt lat="41.79589565345027" lon="1.031044225656144"><ele>302.0</ele><time>2026-03-30T11:32:24Z</time></trkpt><trkpt lat="41.79576903592655" lon="1.0307656263071778"><ele>302.0</ele><time>2026-03-30T11:32:25Z</time></trkpt><trkpt lat="41.7956560647752" lon="1.030470379454095"><ele>302.0</ele><time>2026-03-30T11:32:26Z</time></trkpt><trkpt lat="41.79555359743423" lon="1.0301545030613906"><ele>302.0</ele><time>2026-03-30T11:32:27Z</time></trkpt><trkpt lat="41.79546835955238" lon="1.0298290482852563"><ele>302.0</ele><time>2026-03-30T11:32:28Z</time></trkpt><trkpt lat="41.79539373009087" lon="1.0294986692866315"><ele>302.0</ele><time>2026-03-30T11:32:29Z</time></trkpt><trkpt lat="41.795329288239" lon="1.0291644495693333"><ele>302.0</ele><time>2026-03-30T11:32:30Z</time></trkpt><trkpt lat="41.79528557979991" lon="1.0288235027234838"><ele>302.0</ele><time>2026-03-30T11:32:31Z</time></trkpt><trkpt lat="41.79525662787563" lon="1.0284776698120448"><ele>302.0</ele><time>2026-03-30T11:32:32Z</time></trkpt><trkpt lat="41.795242547041724" lon="1.028130017101968"><ele>302.0</ele><time>2026-03-30T11:32:33Z</time></trkpt><trkpt lat="41.79524531276836" lon="1.0277794338345994"><ele>302.0</ele><time>2026-03-30T11:32:34Z</time></trkpt><trkpt lat="41.79526475781108" lon="1.0274310913541789"><ele>302.0</ele><time>2026-03-30T11:32:35Z</time></trkpt><trkpt lat="41.795298259329094" lon="1.0270814728372024"><ele>302.0</ele><time>2026-03-30T11:32:36Z</time></trkpt><trkpt lat="41.795334373712535" lon="1.0267402842936442"><ele>302.0</ele><time>2026-03-30T11:32:37Z</time></trkpt><trkpt lat="41.79538226948247" lon="1.026404116931348"><ele>302.0</ele><time>2026-03-30T11:32:38Z</time></trkpt><trkpt lat="41.79544333425602" lon="1.0260732761357256"><ele>301.5</ele><time>2026-03-30T11:32:39Z</time></trkpt><trkpt lat="41.79551664597948" lon="1.0257459060470924"><ele>301.0</ele><time>2026-03-30T11:32:40Z</time></trkpt><trkpt lat="41.79560187765865" lon="1.0254279074973764"><ele>301.0</ele><time>2026-03-30T11:32:41Z</time></trkpt><trkpt lat="41.79570324257397" lon="1.025120379699795"><ele>301.0</ele><time>2026-03-30T11:32:42Z</time></trkpt><trkpt lat="41.795809471338124" lon="1.0248214113716372"><ele>300.5</ele><time>2026-03-30T11:32:43Z</time></trkpt><trkpt lat="41.79592516450844" lon="1.024512835223435"><ele>300.0</ele><time>2026-03-30T11:32:44Z</time></trkpt><trkpt lat="41.79604725886644" lon="1.0242162116890594"><ele>301.5</ele><time>2026-03-30T11:32:45Z</time></trkpt><trkpt lat="41.79618230118896" lon="1.0239121598562932"><ele>303.0</ele><time>2026-03-30T11:32:46Z</time></trkpt><trkpt lat="41.79631427064092" lon="1.023606744746635"><ele>301.5</ele><time>2026-03-30T11:32:47Z</time></trkpt><trkpt lat="41.79643875500255" lon="1.0233071407620422"><ele>300.0</ele><time>2026-03-30T11:32:48Z</time></trkpt><trkpt lat="41.796554676761474" lon="1.0230041315727991"><ele>300.0</ele><time>2026-03-30T11:32:49Z</time></trkpt><trkpt lat="41.79666476845855" lon="1.022694448659841"><ele>300.0</ele><time>2026-03-30T11:32:50Z</time></trkpt><trkpt lat="41.79676874810694" lon="1.0223818303624979"><ele>299.0</ele><time>2026-03-30T11:32:51Z</time></trkpt><trkpt lat="41.79686230590857" lon="1.0220617041823015"><ele>298.0</ele><time>2026-03-30T11:32:52Z</time></trkpt><trkpt lat="41.7969493344319" lon="1.0217366994489938"><ele>298.5</ele><time>2026-03-30T11:32:53Z</time></trkpt><trkpt lat="41.797033011435445" lon="1.0214104758615454"><ele>299.0</ele><time>2026-03-30T11:32:54Z</time></trkpt><trkpt lat="41.79711967545042" lon="1.0210683316366218"><ele>299.0</ele><time>2026-03-30T11:32:55Z</time></trkpt><trkpt lat="41.79720787230206" lon="1.0207240422857868"><ele>299.0</ele><time>2026-03-30T11:32:56Z</time></trkpt><trkpt lat="41.797293645808956" lon="1.0203908034637084"><ele>299.0</ele><time>2026-03-30T11:32:57Z</time></trkpt><trkpt lat="41.79736856455388" lon="1.0200750487794559"><ele>299.0</ele><time>2026-03-30T11:32:58Z</time></trkpt><trkpt lat="41.79741735961091" lon="1.019771006175962"><ele>299.0</ele><time>2026-03-30T11:32:59Z</time></trkpt><trkpt lat="41.79745125787406" lon="1.0194572186896704"><ele>299.0</ele><time>2026-03-30T11:33:00Z</time></trkpt><trkpt lat="41.79746599167016" lon="1.0191298903136234"><ele>299.0</ele><time>2026-03-30T11:33:01Z</time></trkpt><trkpt lat="41.797460741195046" lon="1.0188002401110934"><ele>299.0</ele><time>2026-03-30T11:33:02Z</time></trkpt><trkpt lat="41.797421916202914" lon="1.0184599221166393"><ele>298.5</ele><time>2026-03-30T11:33:03Z</time></trkpt><trkpt lat="41.79735371548509" lon="1.0181067128020433"><ele>298.0</ele><time>2026-03-30T11:33:04Z</time></trkpt><trkpt lat="41.79727256203244" lon="1.0177654644757737"><ele>301.5</ele><time>2026-03-30T11:33:05Z</time></trkpt><trkpt lat="41.797165196915394" lon="1.0174436315548507"><ele>305.0</ele><time>2026-03-30T11:33:06Z</time></trkpt><trkpt lat="41.797033630901836" lon="1.017139765689988"><ele>305.0</ele><time>2026-03-30T11:33:07Z</time></trkpt><trkpt lat="41.79687699893306" lon="1.0168538950143322"><ele>305.0</ele><time>2026-03-30T11:33:08Z</time></trkpt><trkpt lat="41.79671196065156" lon="1.0165891509658793"><ele>301.5</ele><time>2026-03-30T11:33:09Z</time></trkpt><trkpt lat="41.796531764131394" lon="1.0163382608056786"><ele>298.0</ele><time>2026-03-30T11:33:10Z</time></trkpt><trkpt lat="41.79635171919801" lon="1.0161097434960984"><ele>298.0</ele><time>2026-03-30T11:33:11Z</time></trkpt><trkpt lat="41.796166015627776" lon="1.01587903502535"><ele>298.0</ele><time>2026-03-30T11:33:12Z</time></trkpt><trkpt lat="41.7959897230991" lon="1.0156298645206485"><ele>298.0</ele><time>2026-03-30T11:33:13Z</time></trkpt><trkpt lat="41.79580921163561" lon="1.0153629856034212"><ele>298.0</ele><time>2026-03-30T11:33:14Z</time></trkpt><trkpt lat="41.795635610727544" lon="1.015087715357842"><ele>299.0</ele><time>2026-03-30T11:33:15Z</time></trkpt><trkpt lat="41.795475085306805" lon="1.01480202746087"><ele>300.0</ele><time>2026-03-30T11:33:16Z</time></trkpt><trkpt lat="41.79532225169815" lon="1.014501663955421"><ele>300.0</ele><time>2026-03-30T11:33:17Z</time></trkpt><trkpt lat="41.79518526383419" lon="1.0141985012996568"><ele>300.0</ele><time>2026-03-30T11:33:18Z</time></trkpt><trkpt lat="41.79505680027413" lon="1.0138921019966296"><ele>298.5</ele><time>2026-03-30T11:33:19Z</time></trkpt><trkpt lat="41.79494706445059" lon="1.0135836288835425"><ele>297.0</ele><time>2026-03-30T11:33:20Z</time></trkpt><trkpt lat="41.794839456017684" lon="1.0132687049443467"><ele>297.0</ele><time>2026-03-30T11:33:21Z</time></trkpt><trkpt lat="41.79474268948831" lon="1.0129532050165913"><ele>297.0</ele><time>2026-03-30T11:33:22Z</time></trkpt><trkpt lat="41.794649457494124" lon="1.0126414760758329"><ele>295.5</ele><time>2026-03-30T11:33:23Z</time></trkpt><trkpt lat="41.794565453399414" lon="1.01227911529795"><ele>294.0</ele><time>2026-03-30T11:33:24Z</time></trkpt><trkpt lat="41.794487667232616" lon="1.011927911270163"><ele>296.0</ele><time>2026-03-30T11:33:25Z</time></trkpt><trkpt lat="41.794444211538604" lon="1.011571224533837"><ele>298.0</ele><time>2026-03-30T11:33:26Z</time></trkpt><trkpt lat="41.794402935075205" lon="1.0112171791454185"><ele>298.0</ele><time>2026-03-30T11:33:27Z</time></trkpt><trkpt lat="41.79436709783078" lon="1.0108725168539023"><ele>298.0</ele><time>2026-03-30T11:33:28Z</time></trkpt><trkpt lat="41.794349071149846" lon="1.0105340315114577"><ele>295.0</ele><time>2026-03-30T11:33:29Z</time></trkpt><trkpt lat="41.79433156727554" lon="1.0101949741994956"><ele>292.0</ele><time>2026-03-30T11:33:30Z</time></trkpt><trkpt lat="41.79433507757951" lon="1.009851974123777"><ele>300.0</ele><time>2026-03-30T11:33:31Z</time></trkpt><trkpt lat="41.794348553157626" lon="1.0095067327821385"><ele>308.0</ele><time>2026-03-30T11:33:32Z</time></trkpt><trkpt lat="41.794374820442385" lon="1.0091672061746475"><ele>311.0</ele><time>2026-03-30T11:33:33Z</time></trkpt><trkpt lat="41.79440818772261" lon="1.008837855267617"><ele>314.0</ele><time>2026-03-30T11:33:34Z</time></trkpt><trkpt lat="41.794455606715175" lon="1.0085194748922393"><ele>312.0</ele><time>2026-03-30T11:33:35Z</time></trkpt><trkpt lat="41.794503283918814" lon="1.008196664273843"><ele>310.0</ele><time>2026-03-30T11:33:36Z</time></trkpt><trkpt lat="41.794555041756766" lon="1.0078773494043607"><ele>310.0</ele><time>2026-03-30T11:33:37Z</time></trkpt><trkpt lat="41.79462867759609" lon="1.0075738081847407"><ele>310.0</ele><time>2026-03-30T11:33:38Z</time></trkpt><trkpt lat="41.79469952160565" lon="1.0072778161685079"><ele>305.5</ele><time>2026-03-30T11:33:39Z</time></trkpt><trkpt lat="41.79478238532142" lon="1.0070032635541633"><ele>301.0</ele><time>2026-03-30T11:33:40Z</time></trkpt><trkpt lat="41.79492200903959" lon="1.0067526401002238"><ele>299.5</ele><time>2026-03-30T11:33:41Z</time></trkpt><trkpt lat="41.79505919715755" lon="1.006515509364852"><ele>298.0</ele><time>2026-03-30T11:33:42Z</time></trkpt><trkpt lat="41.79521067802272" lon="1.0062856395894344"><ele>298.0</ele><time>2026-03-30T11:33:43Z</time></trkpt><trkpt lat="41.79537739266428" lon="1.0060821831817126"><ele>298.0</ele><time>2026-03-30T11:33:44Z</time></trkpt><trkpt lat="41.795557358798476" lon="1.0059064765583328"><ele>298.0</ele><time>2026-03-30T11:33:45Z</time></trkpt><trkpt lat="41.795748749699904" lon="1.0057381548281719"><ele>296.3333333333333</ele><time>2026-03-30T11:33:46Z</time></trkpt><trkpt lat="41.79595381456275" lon="1.0056105925393064"><ele>294.6666666666667</ele><time>2026-03-30T11:33:47Z</time></trkpt><trkpt lat="41.7961604108573" lon="1.0055039723161214"><ele>293.0</ele><time>2026-03-30T11:33:48Z</time></trkpt><trkpt lat="41.79636560782696" lon="1.005408560206005"><ele>293.0</ele><time>2026-03-30T11:33:49Z</time></trkpt><trkpt lat="41.79658102672029" lon="1.0052985759727853"><ele>293.0</ele><time>2026-03-30T11:33:50Z</time></trkpt><trkpt lat="41.796792953512615" lon="1.0051850780779739"><ele>293.0</ele><time>2026-03-30T11:33:51Z</time></trkpt><trkpt lat="41.79700201638376" lon="1.0050600670888898"><ele>293.0</ele><time>2026-03-30T11:33:52Z</time></trkpt><trkpt lat="41.7971967590357" lon="1.0049047915062428"><ele>293.0</ele><time>2026-03-30T11:33:53Z</time></trkpt><trkpt lat="41.79738176012744" lon="1.0047287919592447"><ele>293.0</ele><time>2026-03-30T11:33:54Z</time></trkpt><trkpt lat="41.79755169328395" lon="1.0045362714973005"><ele>293.0</ele><time>2026-03-30T11:33:55Z</time></trkpt><trkpt lat="41.797699880829654" lon="1.004314375944361"><ele>292.33333333333337</ele><time>2026-03-30T11:33:56Z</time></trkpt><trkpt lat="41.7978409377681" lon="1.0040935157479018"><ele>291.6666666666667</ele><time>2026-03-30T11:33:57Z</time></trkpt><trkpt lat="41.79798323354279" lon="1.0038778158893504"><ele>291.0</ele><time>2026-03-30T11:33:58Z</time></trkpt><trkpt lat="41.7981249192961" lon="1.003654122017664"><ele>291.0</ele><time>2026-03-30T11:33:59Z</time></trkpt><trkpt lat="41.79826762935247" lon="1.0034275053964232"><ele>291.0</ele><time>2026-03-30T11:34:00Z</time></trkpt><trkpt lat="41.79842369658005" lon="1.0031820447157414"><ele>291.5</ele><time>2026-03-30T11:34:01Z</time></trkpt><trkpt lat="41.79857380236048" lon="1.0029480837175366"><ele>292.0</ele><time>2026-03-30T11:34:02Z</time></trkpt><trkpt lat="41.798724560492595" lon="1.0027035970523241"><ele>290.5</ele><time>2026-03-30T11:34:03Z</time></trkpt><trkpt lat="41.79887949877212" lon="1.002448024944229"><ele>289.0</ele><time>2026-03-30T11:34:04Z</time></trkpt><trkpt lat="41.79905110723847" lon="1.0021819058767771"><ele>289.0</ele><time>2026-03-30T11:34:05Z</time></trkpt><trkpt lat="41.799231196370336" lon="1.0019285464860828"><ele>289.0</ele><time>2026-03-30T11:34:06Z</time></trkpt><trkpt lat="41.79940014005173" lon="1.0016660955212984"><ele>292.0</ele><time>2026-03-30T11:34:07Z</time></trkpt><trkpt lat="41.79952851369227" lon="1.0014188592902489"><ele>295.0</ele><time>2026-03-30T11:34:08Z</time></trkpt><trkpt lat="41.799656435956486" lon="1.0011539226769919"><ele>295.0</ele><time>2026-03-30T11:34:09Z</time></trkpt><trkpt lat="41.799772064391604" lon="1.0008745979934215"><ele>295.0</ele><time>2026-03-30T11:34:10Z</time></trkpt><trkpt lat="41.79987207718604" lon="1.0005797081433887"><ele>295.5</ele><time>2026-03-30T11:34:11Z</time></trkpt><trkpt lat="41.79996272473157" lon="1.0002715531571633"><ele>296.0</ele><time>2026-03-30T11:34:12Z</time></trkpt><trkpt lat="41.80003801745438" lon="0.9999473996163905"><ele>296.0</ele><time>2026-03-30T11:34:13Z</time></trkpt><trkpt lat="41.8000943102201" lon="0.9996205177435571"><ele>296.0</ele><time>2026-03-30T11:34:14Z</time></trkpt><trkpt lat="41.800136518921505" lon="0.9992881328409311"><ele>296.0</ele><time>2026-03-30T11:34:15Z</time></trkpt><trkpt lat="41.800157881269456" lon="0.9989453927259275"><ele>296.0</ele><time>2026-03-30T11:34:16Z</time></trkpt><trkpt lat="41.80016896314849" lon="0.9985994366650109"><ele>293.5</ele><time>2026-03-30T11:34:17Z</time></trkpt><trkpt lat="41.80015967235526" lon="0.9982583110118269"><ele>291.0</ele><time>2026-03-30T11:34:18Z</time></trkpt><trkpt lat="41.800132732628434" lon="0.9979181699100427"><ele>291.0</ele><time>2026-03-30T11:34:19Z</time></trkpt><trkpt lat="41.800079203205236" lon="0.9975979428531532"><ele>291.0</ele><time>2026-03-30T11:34:20Z</time></trkpt><trkpt lat="41.800037326194506" lon="0.9972434007505351"><ele>290.5</ele><time>2026-03-30T11:34:21Z</time></trkpt><trkpt lat="41.799983340836675" lon="0.9969018775545189"><ele>290.0</ele><time>2026-03-30T11:34:22Z</time></trkpt><trkpt lat="41.79992867781631" lon="0.9965565602521624"><ele>289.5</ele><time>2026-03-30T11:34:23Z</time></trkpt><trkpt lat="41.79987543679393" lon="0.9962025750086605"><ele>289.0</ele><time>2026-03-30T11:34:24Z</time></trkpt><trkpt lat="41.79982361304159" lon="0.9958536924935246"><ele>288.5</ele><time>2026-03-30T11:34:25Z</time></trkpt><trkpt lat="41.79977230166475" lon="0.9955168672202896"><ele>288.0</ele><time>2026-03-30T11:34:26Z</time></trkpt><trkpt lat="41.799720577629834" lon="0.995184061027853"><ele>287.5</ele><time>2026-03-30T11:34:27Z</time></trkpt><trkpt lat="41.79967185196814" lon="0.9948519163646837"><ele>287.0</ele><time>2026-03-30T11:34:28Z</time></trkpt><trkpt lat="41.79962390807692" lon="0.994528078428462"><ele>287.0</ele><time>2026-03-30T11:34:29Z</time></trkpt><trkpt lat="41.799579276571606" lon="0.9942147317498224"><ele>287.0</ele><time>2026-03-30T11:34:30Z</time></trkpt><trkpt lat="41.79952484604525" lon="0.9939066589759902"><ele>291.0</ele><time>2026-03-30T11:34:31Z</time></trkpt><trkpt lat="41.799457535985965" lon="0.993594878715641"><ele>295.0</ele><time>2026-03-30T11:34:32Z</time></trkpt><trkpt lat="41.79937038786245" lon="0.9932853516072434"><ele>292.5</ele><time>2026-03-30T11:34:33Z</time></trkpt><trkpt lat="41.79927057825356" lon="0.9929821796248712"><ele>290.0</ele><time>2026-03-30T11:34:34Z</time></trkpt><trkpt lat="41.79915866300096" lon="0.9926942297805208"><ele>288.0</ele><time>2026-03-30T11:34:35Z</time></trkpt><trkpt lat="41.7990378074014" lon="0.9924200887726959"><ele>286.0</ele><time>2026-03-30T11:34:36Z</time></trkpt><trkpt lat="41.79891949450513" lon="0.9921423057417122"><ele>286.0</ele><time>2026-03-30T11:34:37Z</time></trkpt><trkpt lat="41.79880773151471" lon="0.991859072254754"><ele>286.0</ele><time>2026-03-30T11:34:38Z</time></trkpt><trkpt lat="41.79869482635306" lon="0.9915694791956652"><ele>285.5</ele><time>2026-03-30T11:34:39Z</time></trkpt><trkpt lat="41.79858092514771" lon="0.9912755491217241"><ele>285.0</ele><time>2026-03-30T11:34:40Z</time></trkpt><trkpt lat="41.79846944156622" lon="0.9909801237049598"><ele>288.0</ele><time>2026-03-30T11:34:41Z</time></trkpt><trkpt lat="41.798377569613415" lon="0.9906758729335818"><ele>291.0</ele><time>2026-03-30T11:34:42Z</time></trkpt><trkpt lat="41.79830033571251" lon="0.9903589511350721"><ele>291.0</ele><time>2026-03-30T11:34:43Z</time></trkpt><trkpt lat="41.798232481079154" lon="0.9900366290881144"><ele>291.0</ele><time>2026-03-30T11:34:44Z</time></trkpt><trkpt lat="41.79816889932523" lon="0.9897085791816657"><ele>290.5</ele><time>2026-03-30T11:34:45Z</time></trkpt><trkpt lat="41.798119226708614" lon="0.9893762571470609"><ele>290.0</ele><time>2026-03-30T11:34:46Z</time></trkpt><trkpt lat="41.79808371593318" lon="0.9890344125465819"><ele>290.0</ele><time>2026-03-30T11:34:47Z</time></trkpt><trkpt lat="41.798054200642056" lon="0.9886718216038334"><ele>290.0</ele><time>2026-03-30T11:34:48Z</time></trkpt><trkpt lat="41.798041831513295" lon="0.9882976689122078"><ele>289.0</ele><time>2026-03-30T11:34:49Z</time></trkpt><trkpt lat="41.798045134138924" lon="0.9879294104619373"><ele>288.0</ele><time>2026-03-30T11:34:50Z</time></trkpt><trkpt lat="41.798050399739196" lon="0.9875654220418051"><ele>286.0</ele><time>2026-03-30T11:34:51Z</time></trkpt><trkpt lat="41.79805975978929" lon="0.9872036163733702"><ele>284.0</ele><time>2026-03-30T11:34:52Z</time></trkpt><trkpt lat="41.79806845266838" lon="0.9868591428382572"><ele>284.0</ele><time>2026-03-30T11:34:53Z</time></trkpt><trkpt lat="41.79807879992145" lon="0.9865243472755434"><ele>284.0</ele><time>2026-03-30T11:34:54Z</time></trkpt><trkpt lat="41.798092935781" lon="0.9862076652717575"><ele>284.0</ele><time>2026-03-30T11:34:55Z</time></trkpt><trkpt lat="41.79812430016426" lon="0.9858779028522856"><ele>284.0</ele><time>2026-03-30T11:34:56Z</time></trkpt><trkpt lat="41.79817785367513" lon="0.9855511718309528"><ele>285.0</ele><time>2026-03-30T11:34:57Z</time></trkpt><trkpt lat="41.798267744179405" lon="0.9852319366850376"><ele>286.0</ele><time>2026-03-30T11:34:58Z</time></trkpt><trkpt lat="41.79838376647016" lon="0.9849250967302181"><ele>284.0</ele><time>2026-03-30T11:34:59Z</time></trkpt><trkpt lat="41.7985163368812" lon="0.984639444537405"><ele>282.0</ele><time>2026-03-30T11:35:00Z</time></trkpt><trkpt lat="41.79866093688545" lon="0.9843543161129875"><ele>283.5</ele><time>2026-03-30T11:35:01Z</time></trkpt><trkpt lat="41.79879707662085" lon="0.9840586074660285"><ele>285.0</ele><time>2026-03-30T11:35:02Z</time></trkpt><trkpt lat="41.7989385355987" lon="0.9837489943201303"><ele>285.0</ele><time>2026-03-30T11:35:03Z</time></trkpt><trkpt lat="41.79907606000482" lon="0.9834349681080623"><ele>285.0</ele><time>2026-03-30T11:35:04Z</time></trkpt><trkpt lat="41.799204843038225" lon="0.983124510202381"><ele>284.5</ele><time>2026-03-30T11:35:05Z</time></trkpt><trkpt lat="41.79931928788905" lon="0.9828110419765791"><ele>284.0</ele><time>2026-03-30T11:35:06Z</time></trkpt><trkpt lat="41.79942611508645" lon="0.9824906260557078"><ele>284.0</ele><time>2026-03-30T11:35:07Z</time></trkpt><trkpt lat="41.79951741761455" lon="0.9821632412430849"><ele>284.0</ele><time>2026-03-30T11:35:08Z</time></trkpt><trkpt lat="41.79960236186652" lon="0.9818315963717352"><ele>283.5</ele><time>2026-03-30T11:35:09Z</time></trkpt><trkpt lat="41.79968207035431" lon="0.9814983790623727"><ele>283.0</ele><time>2026-03-30T11:35:10Z</time></trkpt><trkpt lat="41.79975278350047" lon="0.981160566410963"><ele>282.5</ele><time>2026-03-30T11:35:11Z</time></trkpt><trkpt lat="41.79980972335998" lon="0.9808224734451105"><ele>282.0</ele><time>2026-03-30T11:35:12Z</time></trkpt><trkpt lat="41.79985679809652" lon="0.9804843459987148"><ele>282.0</ele><time>2026-03-30T11:35:13Z</time></trkpt><trkpt lat="41.79989759105218" lon="0.9801530152185763"><ele>282.0</ele><time>2026-03-30T11:35:14Z</time></trkpt><trkpt lat="41.79993031335003" lon="0.9798188021098356"><ele>284.0</ele><time>2026-03-30T11:35:15Z</time></trkpt><trkpt lat="41.79995253998738" lon="0.9794820924948141"><ele>286.0</ele><time>2026-03-30T11:35:16Z</time></trkpt><trkpt lat="41.799966694582" lon="0.9791403562866954"><ele>286.5</ele><time>2026-03-30T11:35:17Z</time></trkpt><trkpt lat="41.79997152459207" lon="0.9787877208351575"><ele>287.0</ele><time>2026-03-30T11:35:18Z</time></trkpt><trkpt lat="41.79996817799864" lon="0.9784122936345291"><ele>286.5</ele><time>2026-03-30T11:35:19Z</time></trkpt><trkpt lat="41.79994982633007" lon="0.9780230287973279"><ele>286.0</ele><time>2026-03-30T11:35:20Z</time></trkpt><trkpt lat="41.7999248240088" lon="0.9776343172245985"><ele>285.0</ele><time>2026-03-30T11:35:21Z</time></trkpt><trkpt lat="41.799899325552595" lon="0.9772488087436864"><ele>284.0</ele><time>2026-03-30T11:35:22Z</time></trkpt><trkpt lat="41.79987255288849" lon="0.9768702081528121"><ele>284.0</ele><time>2026-03-30T11:35:23Z</time></trkpt><trkpt lat="41.79984242203323" lon="0.9765011683503997"><ele>284.0</ele><time>2026-03-30T11:35:24Z</time></trkpt><trkpt lat="41.79981500051287" lon="0.9761334611488356"><ele>285.0</ele><time>2026-03-30T11:35:25Z</time></trkpt><trkpt lat="41.79978639495593" lon="0.9757708722738566"><ele>286.0</ele><time>2026-03-30T11:35:26Z</time></trkpt><trkpt lat="41.799760814413816" lon="0.9754148634992238"><ele>286.0</ele><time>2026-03-30T11:35:27Z</time></trkpt><trkpt lat="41.79973732772671" lon="0.975064065638277"><ele>286.0</ele><time>2026-03-30T11:35:28Z</time></trkpt><trkpt lat="41.79971385157216" lon="0.974715013377838"><ele>286.5</ele><time>2026-03-30T11:35:29Z</time></trkpt><trkpt lat="41.79969346104304" lon="0.974366089899416"><ele>287.0</ele><time>2026-03-30T11:35:30Z</time></trkpt><trkpt lat="41.799680258836126" lon="0.9740223080182993"><ele>288.5</ele><time>2026-03-30T11:35:31Z</time></trkpt><trkpt lat="41.79968004451039" lon="0.9736717553047145"><ele>290.0</ele><time>2026-03-30T11:35:32Z</time></trkpt><trkpt lat="41.799687656761485" lon="0.9733248773747862"><ele>291.5</ele><time>2026-03-30T11:35:33Z</time></trkpt><trkpt lat="41.79970316809758" lon="0.972975772662345"><ele>293.0</ele><time>2026-03-30T11:35:34Z</time></trkpt><trkpt lat="41.79972272002995" lon="0.9726304668700152"><ele>292.0</ele><time>2026-03-30T11:35:35Z</time></trkpt><trkpt lat="41.79974772599971" lon="0.9722857979327764"><ele>291.0</ele><time>2026-03-30T11:35:36Z</time></trkpt><trkpt lat="41.79977948829311" lon="0.9719373901896459"><ele>290.5</ele><time>2026-03-30T11:35:37Z</time></trkpt><trkpt lat="41.79981934338233" lon="0.9715952819924121"><ele>290.0</ele><time>2026-03-30T11:35:38Z</time></trkpt><trkpt lat="41.79986407369386" lon="0.9712553166145295"><ele>290.0</ele><time>2026-03-30T11:35:39Z</time></trkpt><trkpt lat="41.79990737841362" lon="0.9709231628639535"><ele>290.0</ele><time>2026-03-30T11:35:40Z</time></trkpt><trkpt lat="41.79995037346504" lon="0.9706040042476871"><ele>290.5</ele><time>2026-03-30T11:35:41Z</time></trkpt><trkpt lat="41.799994771091114" lon="0.9703014571111289"><ele>291.0</ele><time>2026-03-30T11:35:42Z</time></trkpt><trkpt lat="41.80004932773042" lon="0.9699968062211064"><ele>291.0</ele><time>2026-03-30T11:35:43Z</time></trkpt><trkpt lat="41.80010821232286" lon="0.9696910918377702"><ele>291.0</ele><time>2026-03-30T11:35:44Z</time></trkpt><trkpt lat="41.80015951375256" lon="0.9693830141467387"><ele>290.0</ele><time>2026-03-30T11:35:45Z</time></trkpt><trkpt lat="41.80021972671618" lon="0.9690574719765623"><ele>289.0</ele><time>2026-03-30T11:35:46Z</time></trkpt><trkpt lat="41.800313763792836" lon="0.9687207956159531"><ele>289.0</ele><time>2026-03-30T11:35:47Z</time></trkpt><trkpt lat="41.800430048210075" lon="0.9683918357861878"><ele>289.0</ele><time>2026-03-30T11:35:48Z</time></trkpt><trkpt lat="41.800556925967335" lon="0.968076408215797"><ele>286.0</ele><time>2026-03-30T11:35:49Z</time></trkpt><trkpt lat="41.80068088188559" lon="0.9677681788410982"><ele>283.0</ele><time>2026-03-30T11:35:50Z</time></trkpt><trkpt lat="41.80079990394601" lon="0.9674651937536245"><ele>283.0</ele><time>2026-03-30T11:35:51Z</time></trkpt><trkpt lat="41.80091640411985" lon="0.9671637732781505"><ele>283.0</ele><time>2026-03-30T11:35:52Z</time></trkpt><trkpt lat="41.801035370338354" lon="0.9668577859520943"><ele>280.0</ele><time>2026-03-30T11:35:53Z</time></trkpt><trkpt lat="41.80115256980312" lon="0.9665447089906186"><ele>277.0</ele><time>2026-03-30T11:35:54Z</time></trkpt><trkpt lat="41.801263200997944" lon="0.9662239470009739"><ele>277.0</ele><time>2026-03-30T11:35:55Z</time></trkpt><trkpt lat="41.80136856593385" lon="0.9659028626937557"><ele>277.0</ele><time>2026-03-30T11:35:56Z</time></trkpt><trkpt lat="41.80147032159608" lon="0.9655760687323548"><ele>276.5</ele><time>2026-03-30T11:35:57Z</time></trkpt><trkpt lat="41.80155925253679" lon="0.965269025319567"><ele>276.0</ele><time>2026-03-30T11:35:58Z</time></trkpt><trkpt lat="41.80163430060298" lon="0.9649654352344006"><ele>276.6666666666667</ele><time>2026-03-30T11:35:59Z</time></trkpt><trkpt lat="41.80170038460761" lon="0.9646565260703733"><ele>277.33333333333337</ele><time>2026-03-30T11:36:00Z</time></trkpt><trkpt lat="41.801758880096834" lon="0.9643871036230632"><ele>278.0</ele><time>2026-03-30T11:36:01Z</time></trkpt><trkpt lat="41.80182745321547" lon="0.96407421750813"><ele>280.0</ele><time>2026-03-30T11:36:02Z</time></trkpt><trkpt lat="41.801864854659854" lon="0.9638230970108668"><ele>282.0</ele><time>2026-03-30T11:36:03Z</time></trkpt><trkpt lat="41.80189881397838" lon="0.9636070785164652"><ele>284.0</ele><time>2026-03-30T11:36:04Z</time></trkpt><trkpt lat="41.801927496224955" lon="0.963431876780544"><ele>283.0</ele><time>2026-03-30T11:36:05Z</time></trkpt><trkpt lat="41.80195539684087" lon="0.9632826840815257"><ele>282.0</ele><time>2026-03-30T11:36:06Z</time></trkpt><trkpt lat="41.80204126738113" lon="0.9631153541369357"><ele>281.0</ele><time>2026-03-30T11:36:07Z</time></trkpt><trkpt lat="41.80208190620008" lon="0.9629992420332183"><ele>280.0</ele><time>2026-03-30T11:36:08Z</time></trkpt><trkpt lat="41.8020986564154" lon="0.962853462220607"><ele>280.0</ele><time>2026-03-30T11:36:09Z</time></trkpt><trkpt lat="41.802041062917596" lon="0.9626953479035363"><ele>280.0</ele><time>2026-03-30T11:36:10Z</time></trkpt><trkpt lat="41.80200741927156" lon="0.9624909722764141"><ele>280.0</ele><time>2026-03-30T11:36:11Z</time></trkpt><trkpt lat="41.80201702846465" lon="0.96225999009862"><ele>279.0</ele><time>2026-03-30T11:36:12Z</time></trkpt><trkpt lat="41.80203486447236" lon="0.9619990728254209"><ele>278.0</ele><time>2026-03-30T11:36:13Z</time></trkpt><trkpt lat="41.80205564175055" lon="0.9616965899598346"><ele>277.0</ele><time>2026-03-30T11:36:14Z</time></trkpt><trkpt lat="41.80205902373281" lon="0.9613681061864227"><ele>277.0</ele><time>2026-03-30T11:36:15Z</time></trkpt><trkpt lat="41.802050981174624" lon="0.9610767290849901"><ele>277.0</ele><time>2026-03-30T11:36:16Z</time></trkpt><trkpt lat="41.80204939212381" lon="0.960792853479081"><ele>277.0</ele><time>2026-03-30T11:36:17Z</time></trkpt><trkpt lat="41.80204977114235" lon="0.9604777700192072"><ele>277.5</ele><time>2026-03-30T11:36:18Z</time></trkpt><trkpt lat="41.802047368700954" lon="0.9601388087926287"><ele>278.0</ele><time>2026-03-30T11:36:19Z</time></trkpt><trkpt lat="41.802040355682855" lon="0.9597802041391128"><ele>278.0</ele><time>2026-03-30T11:36:20Z</time></trkpt><trkpt lat="41.802022961399025" lon="0.9594048027609137"><ele>278.0</ele><time>2026-03-30T11:36:21Z</time></trkpt><trkpt lat="41.80199961045078" lon="0.9590464169265414"><ele>278.0</ele><time>2026-03-30T11:36:22Z</time></trkpt><trkpt lat="41.80196877844464" lon="0.958712566793496"><ele>278.0</ele><time>2026-03-30T11:36:23Z</time></trkpt><trkpt lat="41.801920566056566" lon="0.9583836800421308"><ele>278.5</ele><time>2026-03-30T11:36:24Z</time></trkpt><trkpt lat="41.80184946975403" lon="0.9580630146128903"><ele>279.0</ele><time>2026-03-30T11:36:25Z</time></trkpt><trkpt lat="41.801777059800656" lon="0.9577406958800795"><ele>277.5</ele><time>2026-03-30T11:36:26Z</time></trkpt><trkpt lat="41.80169352959349" lon="0.9574156875592992"><ele>276.0</ele><time>2026-03-30T11:36:27Z</time></trkpt><trkpt lat="41.8015980679359" lon="0.9570903722505064"><ele>276.0</ele><time>2026-03-30T11:36:28Z</time></trkpt><trkpt lat="41.80149194536101" lon="0.9567731280676013"><ele>276.0</ele><time>2026-03-30T11:36:29Z</time></trkpt><trkpt lat="41.80137077104671" lon="0.9564531532810201"><ele>276.5</ele><time>2026-03-30T11:36:30Z</time></trkpt><trkpt lat="41.80124926226864" lon="0.9561529653834026"><ele>277.0</ele><time>2026-03-30T11:36:31Z</time></trkpt><trkpt lat="41.8011232668902" lon="0.9558731212712289"><ele>278.0</ele><time>2026-03-30T11:36:32Z</time></trkpt><trkpt lat="41.80099083719852" lon="0.9556030119167208"><ele>279.0</ele><time>2026-03-30T11:36:33Z</time></trkpt><trkpt lat="41.80085211751205" lon="0.9553466862777982"><ele>279.0</ele><time>2026-03-30T11:36:34Z</time></trkpt><trkpt lat="41.80071122592325" lon="0.9550925160333189"><ele>279.0</ele><time>2026-03-30T11:36:35Z</time></trkpt><trkpt lat="41.80057059954901" lon="0.9548404518056021"><ele>278.0</ele><time>2026-03-30T11:36:36Z</time></trkpt><trkpt lat="41.80043083729191" lon="0.9545905314186385"><ele>277.0</ele><time>2026-03-30T11:36:37Z</time></trkpt><trkpt lat="41.80029348113982" lon="0.9543296246727678"><ele>277.5</ele><time>2026-03-30T11:36:38Z</time></trkpt><trkpt lat="41.800181229825206" lon="0.9540414851127678"><ele>278.0</ele><time>2026-03-30T11:36:39Z</time></trkpt><trkpt lat="41.8000993020185" lon="0.9537329563759066"><ele>278.0</ele><time>2026-03-30T11:36:40Z</time></trkpt><trkpt lat="41.8000541910003" lon="0.9534057875365313"><ele>278.0</ele><time>2026-03-30T11:36:41Z</time></trkpt><trkpt lat="41.80002798156209" lon="0.9530603682411252"><ele>279.0</ele><time>2026-03-30T11:36:42Z</time></trkpt><trkpt lat="41.800013814232095" lon="0.9527078745262612"><ele>280.0</ele><time>2026-03-30T11:36:43Z</time></trkpt><trkpt lat="41.80001794145385" lon="0.952365020099331"><ele>280.5</ele><time>2026-03-30T11:36:44Z</time></trkpt><trkpt lat="41.80002743654423" lon="0.9520336314481692"><ele>281.0</ele><time>2026-03-30T11:36:45Z</time></trkpt><trkpt lat="41.800019601866445" lon="0.9516970361712709"><ele>281.0</ele><time>2026-03-30T11:36:46Z</time></trkpt><trkpt lat="41.79999736953313" lon="0.9513622554814789"><ele>281.0</ele><time>2026-03-30T11:36:47Z</time></trkpt><trkpt lat="41.79995954002698" lon="0.951026855021007"><ele>281.0</ele><time>2026-03-30T11:36:48Z</time></trkpt><trkpt lat="41.799900184546566" lon="0.9507063031797669"><ele>281.0</ele><time>2026-03-30T11:36:49Z</time></trkpt><trkpt lat="41.799814464810666" lon="0.9503879756700586"><ele>281.0</ele><time>2026-03-30T11:36:50Z</time></trkpt><trkpt lat="41.79971284963785" lon="0.9500736009507235"><ele>281.0</ele><time>2026-03-30T11:36:51Z</time></trkpt><trkpt lat="41.79959956460548" lon="0.9497628337110621"><ele>280.0</ele><time>2026-03-30T11:36:52Z</time></trkpt><trkpt lat="41.79947662192954" lon="0.9494537408252225"><ele>279.0</ele><time>2026-03-30T11:36:53Z</time></trkpt><trkpt lat="41.799357777953645" lon="0.9491445056172297"><ele>281.0</ele><time>2026-03-30T11:36:54Z</time></trkpt><trkpt lat="41.79923864907492" lon="0.9488407445838368"><ele>283.0</ele><time>2026-03-30T11:36:55Z</time></trkpt><trkpt lat="41.79911146970741" lon="0.9485365045041173"><ele>281.5</ele><time>2026-03-30T11:36:56Z</time></trkpt><trkpt lat="41.79898354072783" lon="0.9482309568842725"><ele>280.0</ele><time>2026-03-30T11:36:57Z</time></trkpt><trkpt lat="41.7988611060618" lon="0.9479181702473969"><ele>280.0</ele><time>2026-03-30T11:36:58Z</time></trkpt><trkpt lat="41.79873685499306" lon="0.9476102463988441"><ele>280.0</ele><time>2026-03-30T11:36:59Z</time></trkpt><trkpt lat="41.79860702421246" lon="0.9473057994375583"><ele>280.0</ele><time>2026-03-30T11:37:00Z</time></trkpt><trkpt lat="41.7984720928271" lon="0.9470105731884465"><ele>280.0</ele><time>2026-03-30T11:37:01Z</time></trkpt><trkpt lat="41.79832039276711" lon="0.9467354047509651"><ele>278.0</ele><time>2026-03-30T11:37:02Z</time></trkpt><trkpt lat="41.798147775144464" lon="0.9464861594522419"><ele>276.0</ele><time>2026-03-30T11:37:03Z</time></trkpt><trkpt lat="41.79796410314524" lon="0.9462520973607117"><ele>276.0</ele><time>2026-03-30T11:37:04Z</time></trkpt><trkpt lat="41.797771241872766" lon="0.9460263669493992"><ele>276.0</ele><time>2026-03-30T11:37:05Z</time></trkpt><trkpt lat="41.79758674280614" lon="0.9458047228592713"><ele>278.0</ele><time>2026-03-30T11:37:06Z</time></trkpt><trkpt lat="41.79740433638092" lon="0.9455806834308307"><ele>280.0</ele><time>2026-03-30T11:37:07Z</time></trkpt><trkpt lat="41.797233715724495" lon="0.9453547268492691"><ele>280.0</ele><time>2026-03-30T11:37:08Z</time></trkpt><trkpt lat="41.79707644242533" lon="0.9451118614043647"><ele>280.0</ele><time>2026-03-30T11:37:09Z</time></trkpt><trkpt lat="41.796935135967864" lon="0.9448511413901399"><ele>278.0</ele><time>2026-03-30T11:37:10Z</time></trkpt><trkpt lat="41.79681680881051" lon="0.9445732437691047"><ele>276.0</ele><time>2026-03-30T11:37:11Z</time></trkpt><trkpt lat="41.796713403933346" lon="0.9442863337903376"><ele>278.0</ele><time>2026-03-30T11:37:12Z</time></trkpt><trkpt lat="41.79662041706173" lon="0.9439926138752727"><ele>280.0</ele><time>2026-03-30T11:37:13Z</time></trkpt><trkpt lat="41.79654333943434" lon="0.9436832904879993"><ele>279.0</ele><time>2026-03-30T11:37:14Z</time></trkpt><trkpt lat="41.79649106853157" lon="0.9433743828265168"><ele>278.0</ele><time>2026-03-30T11:37:15Z</time></trkpt><trkpt lat="41.796452389729595" lon="0.9430486341777491"><ele>278.0</ele><time>2026-03-30T11:37:16Z</time></trkpt><trkpt lat="41.796432002103536" lon="0.9427272058612577"><ele>278.0</ele><time>2026-03-30T11:37:17Z</time></trkpt><trkpt lat="41.796434968501714" lon="0.9424048874820761"><ele>277.6666666666667</ele><time>2026-03-30T11:37:18Z</time></trkpt><trkpt lat="41.796446417725264" lon="0.9420934262185694"><ele>277.3333333333333</ele><time>2026-03-30T11:37:19Z</time></trkpt><trkpt lat="41.79647192526228" lon="0.9418059168742737"><ele>277.0</ele><time>2026-03-30T11:37:20Z</time></trkpt><trkpt lat="41.79651331344072" lon="0.9415440544201431"><ele>277.0</ele><time>2026-03-30T11:37:21Z</time></trkpt><trkpt lat="41.79655001032812" lon="0.9413041978432456"><ele>277.0</ele><time>2026-03-30T11:37:22Z</time></trkpt><trkpt lat="41.79657475477409" lon="0.9410761518240166"><ele>277.0</ele><time>2026-03-30T11:37:23Z</time></trkpt><trkpt lat="41.796586113809674" lon="0.9408553966657432"><ele>276.66666666666663</ele><time>2026-03-30T11:37:24Z</time></trkpt><trkpt lat="41.79659157292499" lon="0.9406087972720283"><ele>276.3333333333333</ele><time>2026-03-30T11:37:25Z</time></trkpt><trkpt lat="41.796605901075615" lon="0.9403359523078522"><ele>276.0</ele><time>2026-03-30T11:37:26Z</time></trkpt><trkpt lat="41.79663199785598" lon="0.9400461474663137"><ele>276.0</ele><time>2026-03-30T11:37:27Z</time></trkpt><trkpt lat="41.79665863573208" lon="0.9397606872324606"><ele>276.0</ele><time>2026-03-30T11:37:28Z</time></trkpt><trkpt lat="41.796679110718664" lon="0.9394705236719715"><ele>276.0</ele><time>2026-03-30T11:37:29Z</time></trkpt><trkpt lat="41.796691282613565" lon="0.9391766530597249"><ele>276.3333333333333</ele><time>2026-03-30T11:37:30Z</time></trkpt><trkpt lat="41.79670813701344" lon="0.9388914176279115"><ele>276.66666666666663</ele><time>2026-03-30T11:37:31Z</time></trkpt><trkpt lat="41.79672996544099" lon="0.9386042079056306"><ele>277.0</ele><time>2026-03-30T11:37:32Z</time></trkpt><trkpt lat="41.79675828370164" lon="0.938313974850334"><ele>280.0</ele><time>2026-03-30T11:37:33Z</time></trkpt><trkpt lat="41.79679077402208" lon="0.9380172166933738"><ele>283.0</ele><time>2026-03-30T11:37:34Z</time></trkpt><trkpt lat="41.79681818353348" lon="0.9376892058436899"><ele>280.0</ele><time>2026-03-30T11:37:35Z</time></trkpt><trkpt lat="41.79683951989235" lon="0.9373447092981548"><ele>277.0</ele><time>2026-03-30T11:37:36Z</time></trkpt><trkpt lat="41.796859923243275" lon="0.9370167306028439"><ele>279.0</ele><time>2026-03-30T11:37:37Z</time></trkpt><trkpt lat="41.79688525968413" lon="0.9366926439295147"><ele>281.0</ele><time>2026-03-30T11:37:38Z</time></trkpt><trkpt lat="41.796907168659" lon="0.9363720454108149"><ele>281.0</ele><time>2026-03-30T11:37:39Z</time></trkpt><trkpt lat="41.796927255214875" lon="0.9360134416735999"><ele>281.0</ele><time>2026-03-30T11:37:40Z</time></trkpt><trkpt lat="41.796934287420406" lon="0.935622235020393"><ele>283.5</ele><time>2026-03-30T11:37:41Z</time></trkpt><trkpt lat="41.79693325149401" lon="0.9351988335273512"><ele>286.0</ele><time>2026-03-30T11:37:42Z</time></trkpt><trkpt lat="41.79690871132137" lon="0.9347581906123776"><ele>288.5</ele><time>2026-03-30T11:37:43Z</time></trkpt><trkpt lat="41.79687819758741" lon="0.9343139176259506"><ele>291.0</ele><time>2026-03-30T11:37:44Z</time></trkpt><trkpt lat="41.79687036057658" lon="0.9339050039546677"><ele>291.5</ele><time>2026-03-30T11:37:45Z</time></trkpt><trkpt lat="41.79685434302746" lon="0.9335473995506818"><ele>292.0</ele><time>2026-03-30T11:37:46Z</time></trkpt><trkpt lat="41.79683757717988" lon="0.9331962308053722"><ele>291.0</ele><time>2026-03-30T11:37:47Z</time></trkpt><trkpt lat="41.79683825205512" lon="0.9328209638570985"><ele>290.0</ele><time>2026-03-30T11:37:48Z</time></trkpt><trkpt lat="41.79687034084704" lon="0.9324297556760869"><ele>290.0</ele><time>2026-03-30T11:37:49Z</time></trkpt><trkpt lat="41.796919964428284" lon="0.9320538926703625"><ele>290.0</ele><time>2026-03-30T11:37:50Z</time></trkpt><trkpt lat="41.796983038727625" lon="0.9316965977573185"><ele>290.0</ele><time>2026-03-30T11:37:51Z</time></trkpt><trkpt lat="41.79705393318216" lon="0.9313538957537096"><ele>290.0</ele><time>2026-03-30T11:37:52Z</time></trkpt><trkpt lat="41.79712658129647" lon="0.931016160015855"><ele>290.5</ele><time>2026-03-30T11:37:53Z</time></trkpt><trkpt lat="41.797200250120724" lon="0.9306693480460948"><ele>291.0</ele><time>2026-03-30T11:37:54Z</time></trkpt><trkpt lat="41.79727258653657" lon="0.9303322721366624"><ele>291.5</ele><time>2026-03-30T11:37:55Z</time></trkpt><trkpt lat="41.797345477782365" lon="0.9299922289741059"><ele>292.0</ele><time>2026-03-30T11:37:56Z</time></trkpt><trkpt lat="41.79741936462694" lon="0.9296512065602615"><ele>292.0</ele><time>2026-03-30T11:37:57Z</time></trkpt><trkpt lat="41.797497601426535" lon="0.9293144543246392"><ele>292.0</ele><time>2026-03-30T11:37:58Z</time></trkpt><trkpt lat="41.79757861989066" lon="0.9289789340570873"><ele>294.5</ele><time>2026-03-30T11:37:59Z</time></trkpt><trkpt lat="41.797659921176496" lon="0.9286432091648591"><ele>297.0</ele><time>2026-03-30T11:38:00Z</time></trkpt><trkpt lat="41.797741732599356" lon="0.9283080694853832"><ele>297.0</ele><time>2026-03-30T11:38:01Z</time></trkpt><trkpt lat="41.797821097617096" lon="0.9279699489435486"><ele>297.0</ele><time>2026-03-30T11:38:02Z</time></trkpt><trkpt lat="41.79790853719362" lon="0.9276358609209422"><ele>296.5</ele><time>2026-03-30T11:38:03Z</time></trkpt><trkpt lat="41.797993094520464" lon="0.9273001991860953"><ele>296.0</ele><time>2026-03-30T11:38:04Z</time></trkpt><trkpt lat="41.79807183302341" lon="0.9269627191784757"><ele>296.5</ele><time>2026-03-30T11:38:05Z</time></trkpt><trkpt lat="41.79815577809592" lon="0.9266159628790435"><ele>297.0</ele><time>2026-03-30T11:38:06Z</time></trkpt><trkpt lat="41.79824240359096" lon="0.926270024828388"><ele>297.0</ele><time>2026-03-30T11:38:07Z</time></trkpt><trkpt lat="41.79833093109319" lon="0.925927613963432"><ele>297.0</ele><time>2026-03-30T11:38:08Z</time></trkpt><trkpt lat="41.79841903314775" lon="0.9255753057951799"><ele>295.5</ele><time>2026-03-30T11:38:09Z</time></trkpt><trkpt lat="41.7985038109491" lon="0.9252179937734593"><ele>294.0</ele><time>2026-03-30T11:38:10Z</time></trkpt><trkpt lat="41.79859292709805" lon="0.9248565465282409"><ele>292.0</ele><time>2026-03-30T11:38:11Z</time></trkpt><trkpt lat="41.798683714964355" lon="0.9244998405992425"><ele>290.0</ele><time>2026-03-30T11:38:12Z</time></trkpt><trkpt lat="41.79877484301364" lon="0.9241453966634731"><ele>289.5</ele><time>2026-03-30T11:38:13Z</time></trkpt><trkpt lat="41.79886811522479" lon="0.9237909317910018"><ele>289.0</ele><time>2026-03-30T11:38:14Z</time></trkpt><trkpt lat="41.798955831352494" lon="0.923439885531713"><ele>288.5</ele><time>2026-03-30T11:38:15Z</time></trkpt><trkpt lat="41.7990452061563" lon="0.9230877492917996"><ele>288.0</ele><time>2026-03-30T11:38:16Z</time></trkpt><trkpt lat="41.799138134516454" lon="0.9227395020795944"><ele>289.0</ele><time>2026-03-30T11:38:17Z</time></trkpt><trkpt lat="41.79923356984084" lon="0.9223923825977944"><ele>290.0</ele><time>2026-03-30T11:38:18Z</time></trkpt><trkpt lat="41.79933112486262" lon="0.9220481412038165"><ele>287.5</ele><time>2026-03-30T11:38:19Z</time></trkpt><trkpt lat="41.79942832118164" lon="0.9217046582377839"><ele>285.0</ele><time>2026-03-30T11:38:20Z</time></trkpt><trkpt lat="41.79951787185784" lon="0.9213625543452516"><ele>285.0</ele><time>2026-03-30T11:38:21Z</time></trkpt><trkpt lat="41.79959740336135" lon="0.9210284621676933"><ele>285.0</ele><time>2026-03-30T11:38:22Z</time></trkpt><trkpt lat="41.79967621016653" lon="0.9206769283622205"><ele>285.0</ele><time>2026-03-30T11:38:23Z</time></trkpt><trkpt lat="41.79974846440365" lon="0.920327669968942"><ele>285.0</ele><time>2026-03-30T11:38:24Z</time></trkpt><trkpt lat="41.79981475401291" lon="0.9199647366646327"><ele>285.0</ele><time>2026-03-30T11:38:25Z</time></trkpt><trkpt lat="41.79987422206839" lon="0.9195981218066616"><ele>285.0</ele><time>2026-03-30T11:38:26Z</time></trkpt><trkpt lat="41.79993204105685" lon="0.9192324504701964"><ele>285.0</ele><time>2026-03-30T11:38:27Z</time></trkpt><trkpt lat="41.79999145980961" lon="0.9188685687318345"><ele>285.0</ele><time>2026-03-30T11:38:28Z</time></trkpt><trkpt lat="41.80005073728564" lon="0.9185091040241352"><ele>288.0</ele><time>2026-03-30T11:38:29Z</time></trkpt><trkpt lat="41.80010761554286" lon="0.9181540532926146"><ele>291.0</ele><time>2026-03-30T11:38:30Z</time></trkpt><trkpt lat="41.800164345126625" lon="0.9177923382976363"><ele>286.5</ele><time>2026-03-30T11:38:31Z</time></trkpt><trkpt lat="41.80022507629335" lon="0.9174371428785434"><ele>282.0</ele><time>2026-03-30T11:38:32Z</time></trkpt><trkpt lat="41.800286612030554" lon="0.9170824428891724"><ele>284.5</ele><time>2026-03-30T11:38:33Z</time></trkpt><trkpt lat="41.800352372845715" lon="0.9167194405362336"><ele>287.0</ele><time>2026-03-30T11:38:34Z</time></trkpt><trkpt lat="41.800425108950556" lon="0.9163526797556414"><ele>287.0</ele><time>2026-03-30T11:38:35Z</time></trkpt><trkpt lat="41.80049962207432" lon="0.9159770284066785"><ele>287.0</ele><time>2026-03-30T11:38:36Z</time></trkpt><trkpt lat="41.800570979596415" lon="0.9156155883362119"><ele>288.5</ele><time>2026-03-30T11:38:37Z</time></trkpt><trkpt lat="41.80064249594941" lon="0.9152539828564169"><ele>290.0</ele><time>2026-03-30T11:38:38Z</time></trkpt><trkpt lat="41.800716660346325" lon="0.9148770818031112"><ele>291.5</ele><time>2026-03-30T11:38:39Z</time></trkpt><trkpt lat="41.800791337948176" lon="0.9145086156276505"><ele>293.0</ele><time>2026-03-30T11:38:40Z</time></trkpt><trkpt lat="41.800864320021134" lon="0.9141449466783063"><ele>293.5</ele><time>2026-03-30T11:38:41Z</time></trkpt><trkpt lat="41.800936127922625" lon="0.913787647565756"><ele>294.0</ele><time>2026-03-30T11:38:42Z</time></trkpt><trkpt lat="41.80100903309288" lon="0.9134274906074742"><ele>294.0</ele><time>2026-03-30T11:38:43Z</time></trkpt><trkpt lat="41.801081115109824" lon="0.9130761892158684"><ele>294.0</ele><time>2026-03-30T11:38:44Z</time></trkpt><trkpt lat="41.80115448481888" lon="0.9127177366550234"><ele>294.0</ele><time>2026-03-30T11:38:45Z</time></trkpt><trkpt lat="41.80122470009871" lon="0.9123574845186153"><ele>294.0</ele><time>2026-03-30T11:38:46Z</time></trkpt><trkpt lat="41.801293013037565" lon="0.912000686607659"><ele>293.0</ele><time>2026-03-30T11:38:47Z</time></trkpt><trkpt lat="41.801364124633366" lon="0.9116379864502191"><ele>292.0</ele><time>2026-03-30T11:38:48Z</time></trkpt><trkpt lat="41.80143981576091" lon="0.9112751641872079"><ele>292.0</ele><time>2026-03-30T11:38:49Z</time></trkpt><trkpt lat="41.801514893866084" lon="0.9109106925816832"><ele>292.0</ele><time>2026-03-30T11:38:50Z</time></trkpt><trkpt lat="41.80158915757012" lon="0.910545960742569"><ele>292.0</ele><time>2026-03-30T11:38:51Z</time></trkpt><trkpt lat="41.80166186334645" lon="0.9101812178585712"><ele>292.0</ele><time>2026-03-30T11:38:52Z</time></trkpt><trkpt lat="41.8017336453777" lon="0.9098136921244564"><ele>292.0</ele><time>2026-03-30T11:38:53Z</time></trkpt><trkpt lat="41.80180929631432" lon="0.9094447045082386"><ele>292.0</ele><time>2026-03-30T11:38:54Z</time></trkpt><trkpt lat="41.80188394761996" lon="0.9090814069723092"><ele>288.0</ele><time>2026-03-30T11:38:55Z</time></trkpt><trkpt lat="41.801955935331996" lon="0.908717391930364"><ele>284.0</ele><time>2026-03-30T11:38:56Z</time></trkpt><trkpt lat="41.80202991391691" lon="0.9083580536094855"><ele>283.5</ele><time>2026-03-30T11:38:57Z</time></trkpt><trkpt lat="41.802100856629366" lon="0.907997571389001"><ele>283.0</ele><time>2026-03-30T11:38:58Z</time></trkpt><trkpt lat="41.80217399680593" lon="0.9076353521849706"><ele>282.5</ele><time>2026-03-30T11:38:59Z</time></trkpt><trkpt lat="41.80225108232145" lon="0.9072776093258301"><ele>282.0</ele><time>2026-03-30T11:39:00Z</time></trkpt><trkpt lat="41.802334554159835" lon="0.9069374976578516"><ele>281.5</ele><time>2026-03-30T11:39:01Z</time></trkpt><trkpt lat="41.80241220747094" lon="0.9065838140556625"><ele>281.0</ele><time>2026-03-30T11:39:02Z</time></trkpt><trkpt lat="41.80248879520432" lon="0.9062275272474068"><ele>281.5</ele><time>2026-03-30T11:39:03Z</time></trkpt><trkpt lat="41.80256747349726" lon="0.9058755739766758"><ele>282.0</ele><time>2026-03-30T11:39:04Z</time></trkpt><trkpt lat="41.80264418076261" lon="0.9055274338254106"><ele>278.5</ele><time>2026-03-30T11:39:05Z</time></trkpt><trkpt lat="41.80272351003607" lon="0.9051682895285308"><ele>275.0</ele><time>2026-03-30T11:39:06Z</time></trkpt><trkpt lat="41.80280518008605" lon="0.90480730227998"><ele>274.5</ele><time>2026-03-30T11:39:07Z</time></trkpt><trkpt lat="41.80288498732811" lon="0.9044452765225957"><ele>274.0</ele><time>2026-03-30T11:39:08Z</time></trkpt><trkpt lat="41.802965449097506" lon="0.904083032153938"><ele>274.0</ele><time>2026-03-30T11:39:09Z</time></trkpt><trkpt lat="41.803047992262876" lon="0.9037165842712044"><ele>274.0</ele><time>2026-03-30T11:39:10Z</time></trkpt><trkpt lat="41.80313054698624" lon="0.9033443074841422"><ele>275.0</ele><time>2026-03-30T11:39:11Z</time></trkpt><trkpt lat="41.80321327461114" lon="0.9029781021813726"><ele>276.0</ele><time>2026-03-30T11:39:12Z</time></trkpt><trkpt lat="41.80329434446452" lon="0.9026172492543731"><ele>275.5</ele><time>2026-03-30T11:39:13Z</time></trkpt><trkpt lat="41.803372620268966" lon="0.9022589479929423"><ele>275.0</ele><time>2026-03-30T11:39:14Z</time></trkpt><trkpt lat="41.803449842540054" lon="0.9018963754067936"><ele>273.0</ele><time>2026-03-30T11:39:15Z</time></trkpt><trkpt lat="41.80352450400857" lon="0.9015361553123213"><ele>271.0</ele><time>2026-03-30T11:39:16Z</time></trkpt><trkpt lat="41.80359005580825" lon="0.9011713643002939"><ele>271.0</ele><time>2026-03-30T11:39:17Z</time></trkpt><trkpt lat="41.80364333453522" lon="0.9008058738863367"><ele>271.0</ele><time>2026-03-30T11:39:18Z</time></trkpt><trkpt lat="41.80369106111433" lon="0.9004367075718664"><ele>270.0</ele><time>2026-03-30T11:39:19Z</time></trkpt><trkpt lat="41.80372657700676" lon="0.9000610235650953"><ele>269.0</ele><time>2026-03-30T11:39:20Z</time></trkpt><trkpt lat="41.80375450297969" lon="0.8996906385907949"><ele>269.0</ele><time>2026-03-30T11:39:21Z</time></trkpt><trkpt lat="41.80377833286736" lon="0.8993173873218263"><ele>269.0</ele><time>2026-03-30T11:39:22Z</time></trkpt><trkpt lat="41.80379097205939" lon="0.8989562486605975"><ele>269.0</ele><time>2026-03-30T11:39:23Z</time></trkpt><trkpt lat="41.80379358672267" lon="0.8985932798788295"><ele>269.0</ele><time>2026-03-30T11:39:24Z</time></trkpt><trkpt lat="41.80378809475999" lon="0.8982295962363838"><ele>269.0</ele><time>2026-03-30T11:39:25Z</time></trkpt><trkpt lat="41.80377596068309" lon="0.8978569432816069"><ele>269.0</ele><time>2026-03-30T11:39:26Z</time></trkpt><trkpt lat="41.803751642430974" lon="0.8974795505175737"><ele>269.0</ele><time>2026-03-30T11:39:27Z</time></trkpt><trkpt lat="41.80372062568967" lon="0.8971030246618253"><ele>269.0</ele><time>2026-03-30T11:39:28Z</time></trkpt><trkpt lat="41.80368202469566" lon="0.8967345867196762"><ele>268.5</ele><time>2026-03-30T11:39:29Z</time></trkpt><trkpt lat="41.80364365957267" lon="0.8963663938639027"><ele>268.0</ele><time>2026-03-30T11:39:30Z</time></trkpt><trkpt lat="41.80360412801606" lon="0.896004757529456"><ele>267.5</ele><time>2026-03-30T11:39:31Z</time></trkpt><trkpt lat="41.803561686932035" lon="0.8956447130182112"><ele>267.0</ele><time>2026-03-30T11:39:32Z</time></trkpt><trkpt lat="41.80352245877106" lon="0.8952752775289412"><ele>267.0</ele><time>2026-03-30T11:39:33Z</time></trkpt><trkpt lat="41.80348674184017" lon="0.8949105403842273"><ele>267.0</ele><time>2026-03-30T11:39:34Z</time></trkpt><trkpt lat="41.80344740488096" lon="0.8945362292741612"><ele>266.5</ele><time>2026-03-30T11:39:35Z</time></trkpt><trkpt lat="41.803405868588825" lon="0.8941701174889706"><ele>266.0</ele><time>2026-03-30T11:39:36Z</time></trkpt><trkpt lat="41.803367289373284" lon="0.8938055964274911"><ele>266.0</ele><time>2026-03-30T11:39:37Z</time></trkpt><trkpt lat="41.803329496972815" lon="0.8934478323465049"><ele>266.0</ele><time>2026-03-30T11:39:38Z</time></trkpt><trkpt lat="41.803292386053684" lon="0.8930985335633544"><ele>267.5</ele><time>2026-03-30T11:39:39Z</time></trkpt><trkpt lat="41.803254993354344" lon="0.8927565189134263"><ele>269.0</ele><time>2026-03-30T11:39:40Z</time></trkpt><trkpt lat="41.80322078027443" lon="0.8924177852056175"><ele>269.0</ele><time>2026-03-30T11:39:41Z</time></trkpt><trkpt lat="41.80320350646713" lon="0.8920568209763603"><ele>269.0</ele><time>2026-03-30T11:39:42Z</time></trkpt><trkpt lat="41.80322289629485" lon="0.8916784966986098"><ele>268.5</ele><time>2026-03-30T11:39:43Z</time></trkpt><trkpt lat="41.80327047180685" lon="0.8912963655424722"><ele>268.0</ele><time>2026-03-30T11:39:44Z</time></trkpt><trkpt lat="41.803345753133016" lon="0.8909249664280748"><ele>269.0</ele><time>2026-03-30T11:39:45Z</time></trkpt><trkpt lat="41.80343722850124" lon="0.8905683449562841"><ele>270.0</ele><time>2026-03-30T11:39:46Z</time></trkpt><trkpt lat="41.80352118047278" lon="0.8902105727746862"><ele>265.5</ele><time>2026-03-30T11:39:47Z</time></trkpt><trkpt lat="41.8035934498307" lon="0.8898547617377962"><ele>261.0</ele><time>2026-03-30T11:39:48Z</time></trkpt><trkpt lat="41.80366324526084" lon="0.8894994166675697"><ele>261.5</ele><time>2026-03-30T11:39:49Z</time></trkpt><trkpt lat="41.803733109743746" lon="0.8891432034288589"><ele>262.0</ele><time>2026-03-30T11:39:50Z</time></trkpt><trkpt lat="41.803805325617375" lon="0.8887907705302426"><ele>262.0</ele><time>2026-03-30T11:39:51Z</time></trkpt><trkpt lat="41.8038761983242" lon="0.8884460895918008"><ele>262.0</ele><time>2026-03-30T11:39:52Z</time></trkpt><trkpt lat="41.80394669564313" lon="0.8881029920046994"><ele>262.0</ele><time>2026-03-30T11:39:53Z</time></trkpt><trkpt lat="41.804015080307686" lon="0.8877619869401765"><ele>262.0</ele><time>2026-03-30T11:39:54Z</time></trkpt><trkpt lat="41.80408664719078" lon="0.8874276055361651"><ele>262.5</ele><time>2026-03-30T11:39:55Z</time></trkpt><trkpt lat="41.80416283137596" lon="0.8871028355880893"><ele>263.0</ele><time>2026-03-30T11:39:56Z</time></trkpt><trkpt lat="41.804243579870715" lon="0.8867946709193752"><ele>267.5</ele><time>2026-03-30T11:39:57Z</time></trkpt><trkpt lat="41.80433080967546" lon="0.8864944226660824"><ele>272.0</ele><time>2026-03-30T11:39:58Z</time></trkpt><trkpt lat="41.80442238505826" lon="0.8861878297228817"><ele>272.0</ele><time>2026-03-30T11:39:59Z</time></trkpt><trkpt lat="41.80452454088791" lon="0.88587560527341"><ele>272.0</ele><time>2026-03-30T11:40:00Z</time></trkpt><trkpt lat="41.80465013682477" lon="0.8855808265910117"><ele>272.0</ele><time>2026-03-30T11:40:01Z</time></trkpt><trkpt lat="41.80479946354037" lon="0.8853031388736571"><ele>272.0</ele><time>2026-03-30T11:40:02Z</time></trkpt><trkpt lat="41.80496054295748" lon="0.8850376857685036"><ele>268.5</ele><time>2026-03-30T11:40:03Z</time></trkpt><trkpt lat="41.80513685818156" lon="0.88478800762336"><ele>265.0</ele><time>2026-03-30T11:40:04Z</time></trkpt><trkpt lat="41.80532152266524" lon="0.8845432869490433"><ele>263.0</ele><time>2026-03-30T11:40:05Z</time></trkpt><trkpt lat="41.8055163823207" lon="0.8843070237962056"><ele>261.0</ele><time>2026-03-30T11:40:06Z</time></trkpt><trkpt lat="41.80571928766091" lon="0.8840789261803932"><ele>259.0</ele><time>2026-03-30T11:40:07Z</time></trkpt><trkpt lat="41.80592918225112" lon="0.8838681461085476"><ele>257.0</ele><time>2026-03-30T11:40:08Z</time></trkpt><trkpt lat="41.80613971892442" lon="0.8836598269429068"><ele>254.5</ele><time>2026-03-30T11:40:09Z</time></trkpt><trkpt lat="41.80634507879347" lon="0.8834417304719084"><ele>252.0</ele><time>2026-03-30T11:40:10Z</time></trkpt><trkpt lat="41.80653511723519" lon="0.8831991489896774"><ele>252.0</ele><time>2026-03-30T11:40:11Z</time></trkpt><trkpt lat="41.80670667469148" lon="0.8829400084910249"><ele>252.0</ele><time>2026-03-30T11:40:12Z</time></trkpt><trkpt lat="41.80686366601606" lon="0.8826625642952269"><ele>251.0</ele><time>2026-03-30T11:40:13Z</time></trkpt><trkpt lat="41.80699322408512" lon="0.8823642207136698"><ele>250.0</ele><time>2026-03-30T11:40:14Z</time></trkpt><trkpt lat="41.807105636285385" lon="0.8820540188378249"><ele>248.5</ele><time>2026-03-30T11:40:15Z</time></trkpt><trkpt lat="41.807194503082485" lon="0.8817341938767256"><ele>247.0</ele><time>2026-03-30T11:40:16Z</time></trkpt><trkpt lat="41.80727405989784" lon="0.8814025651921655"><ele>247.0</ele><time>2026-03-30T11:40:17Z</time></trkpt><trkpt lat="41.80733124461733" lon="0.8810552274454975"><ele>247.0</ele><time>2026-03-30T11:40:18Z</time></trkpt><trkpt lat="41.807368397751944" lon="0.8807149796284026"><ele>247.0</ele><time>2026-03-30T11:40:19Z</time></trkpt><trkpt lat="41.80737877125532" lon="0.880390235658302"><ele>247.0</ele><time>2026-03-30T11:40:20Z</time></trkpt><trkpt lat="41.80736584379191" lon="0.8800879643835423"><ele>246.66666666666666</ele><time>2026-03-30T11:40:21Z</time></trkpt><trkpt lat="41.80734312894008" lon="0.8798176209503319"><ele>246.33333333333331</ele><time>2026-03-30T11:40:22Z</time></trkpt><trkpt lat="41.807310924673466" lon="0.8795833623021475"><ele>246.0</ele><time>2026-03-30T11:40:23Z</time></trkpt><trkpt lat="41.80727103809923" lon="0.8793578627631986"><ele>245.75</ele><time>2026-03-30T11:40:24Z</time></trkpt><trkpt lat="41.807228572160284" lon="0.8791464816710223"><ele>245.5</ele><time>2026-03-30T11:40:25Z</time></trkpt><trkpt lat="41.80718665112142" lon="0.8789539650668445"><ele>245.25</ele><time>2026-03-30T11:40:26Z</time></trkpt><trkpt lat="41.807152231755026" lon="0.8787896331011373"><ele>245.0</ele><time>2026-03-30T11:40:27Z</time></trkpt><trkpt lat="41.80713708604919" lon="0.8786515248393488"><ele>245.0</ele><time>2026-03-30T11:40:28Z</time></trkpt><trkpt lat="41.80716264510785" lon="0.8785157496769547"><ele>245.0</ele><time>2026-03-30T11:40:29Z</time></trkpt><trkpt lat="41.807184569461384" lon="0.8783942156304432"><ele>245.0</ele><time>2026-03-30T11:40:30Z</time></trkpt><trkpt lat="41.80717416407595" lon="0.8782507582405545"><ele>245.0</ele><time>2026-03-30T11:40:31Z</time></trkpt><trkpt lat="41.807101726780964" lon="0.8781053358903456"><ele>245.0</ele><time>2026-03-30T11:40:32Z</time></trkpt><trkpt lat="41.80699620657762" lon="0.877954660792215"><ele>245.33333333333334</ele><time>2026-03-30T11:40:33Z</time></trkpt><trkpt lat="41.80692829573891" lon="0.8777839011629455"><ele>245.66666666666669</ele><time>2026-03-30T11:40:34Z</time></trkpt><trkpt lat="41.80690125158544" lon="0.8775853594905672"><ele>246.0</ele><time>2026-03-30T11:40:35Z</time></trkpt><trkpt lat="41.806909599197176" lon="0.8773662558518389"><ele>246.0</ele><time>2026-03-30T11:40:36Z</time></trkpt><trkpt lat="41.80691192817172" lon="0.8771212525238994"><ele>246.0</ele><time>2026-03-30T11:40:37Z</time></trkpt><trkpt lat="41.806923001015804" lon="0.8768380811387918"><ele>246.0</ele><time>2026-03-30T11:40:38Z</time></trkpt><trkpt lat="41.80696207248332" lon="0.8765234915797236"><ele>246.0</ele><time>2026-03-30T11:40:39Z</time></trkpt><trkpt lat="41.80701212904504" lon="0.876201845854902"><ele>246.0</ele><time>2026-03-30T11:40:40Z</time></trkpt><trkpt lat="41.807063469475494" lon="0.8759052732762399"><ele>244.0</ele><time>2026-03-30T11:40:41Z</time></trkpt><trkpt lat="41.80712611212116" lon="0.875588663525899"><ele>242.0</ele><time>2026-03-30T11:40:42Z</time></trkpt><trkpt lat="41.80720816549595" lon="0.8752390804582814"><ele>243.0</ele><time>2026-03-30T11:40:43Z</time></trkpt><trkpt lat="41.8072985804862" lon="0.8749014102259783"><ele>244.0</ele><time>2026-03-30T11:40:44Z</time></trkpt><trkpt lat="41.80739661839552" lon="0.874572735309517"><ele>244.5</ele><time>2026-03-30T11:40:45Z</time></trkpt><trkpt lat="41.80750106106887" lon="0.8742586795501422"><ele>245.0</ele><time>2026-03-30T11:40:46Z</time></trkpt><trkpt lat="41.807611291961756" lon="0.8739524575567784"><ele>247.5</ele><time>2026-03-30T11:40:47Z</time></trkpt><trkpt lat="41.80772866930761" lon="0.8736524026068534"><ele>250.0</ele><time>2026-03-30T11:40:48Z</time></trkpt><trkpt lat="41.807862306878356" lon="0.8733685525126258"><ele>250.5</ele><time>2026-03-30T11:40:49Z</time></trkpt><trkpt lat="41.80800664435833" lon="0.8731002387341473"><ele>251.0</ele><time>2026-03-30T11:40:50Z</time></trkpt><trkpt lat="41.80817191110814" lon="0.8728570307212679"><ele>251.0</ele><time>2026-03-30T11:40:51Z</time></trkpt><trkpt lat="41.808353713042344" lon="0.8726397171098834"><ele>251.0</ele><time>2026-03-30T11:40:52Z</time></trkpt><trkpt lat="41.808552694699245" lon="0.872438974594209"><ele>250.0</ele><time>2026-03-30T11:40:53Z</time></trkpt><trkpt lat="41.808755387264476" lon="0.872249597455156"><ele>249.0</ele><time>2026-03-30T11:40:54Z</time></trkpt><trkpt lat="41.808963346901166" lon="0.8720513672403118"><ele>249.0</ele><time>2026-03-30T11:40:55Z</time></trkpt><trkpt lat="41.80916736109035" lon="0.8718504253789376"><ele>249.0</ele><time>2026-03-30T11:40:56Z</time></trkpt><trkpt lat="41.80936850456954" lon="0.8716351194128706"><ele>249.0</ele><time>2026-03-30T11:40:57Z</time></trkpt><trkpt lat="41.809553089634164" lon="0.8714054933253483"><ele>249.0</ele><time>2026-03-30T11:40:58Z</time></trkpt><trkpt lat="41.80972356840191" lon="0.8711468106353997"><ele>247.0</ele><time>2026-03-30T11:40:59Z</time></trkpt><trkpt lat="41.80989158960037" lon="0.8708670618687824"><ele>245.0</ele><time>2026-03-30T11:41:00Z</time></trkpt><trkpt lat="41.81004973620573" lon="0.8705589774949238"><ele>248.5</ele><time>2026-03-30T11:41:01Z</time></trkpt><trkpt lat="41.81019381809835" lon="0.8702330782655464"><ele>252.0</ele><time>2026-03-30T11:41:02Z</time></trkpt><trkpt lat="41.81031353305749" lon="0.8698981522524015"><ele>252.0</ele><time>2026-03-30T11:41:03Z</time></trkpt><trkpt lat="41.8104191869613" lon="0.86957391021023"><ele>252.0</ele><time>2026-03-30T11:41:04Z</time></trkpt><trkpt lat="41.81052129060117" lon="0.8692723578070637"><ele>251.66666666666669</ele><time>2026-03-30T11:41:05Z</time></trkpt><trkpt lat="41.8106168304614" lon="0.8689930773552859"><ele>251.33333333333334</ele><time>2026-03-30T11:41:06Z</time></trkpt><trkpt lat="41.81070167784253" lon="0.868742738143594"><ele>251.0</ele><time>2026-03-30T11:41:07Z</time></trkpt><trkpt lat="41.81079223530353" lon="0.8685300301709323"><ele>250.66666666666669</ele><time>2026-03-30T11:41:08Z</time></trkpt><trkpt lat="41.81088890961923" lon="0.86834307068588"><ele>250.33333333333331</ele><time>2026-03-30T11:41:09Z</time></trkpt><trkpt lat="41.81098440248149" lon="0.8681797928509907"><ele>250.0</ele><time>2026-03-30T11:41:10Z</time></trkpt><trkpt lat="41.811073947314206" lon="0.8680492345291658"><ele>249.8</ele><time>2026-03-30T11:41:11Z</time></trkpt><trkpt lat="41.81115562604538" lon="0.8679509044053373"><ele>249.6</ele><time>2026-03-30T11:41:12Z</time></trkpt><trkpt lat="41.81123920982818" lon="0.8678954346187905"><ele>249.39999999999998</ele><time>2026-03-30T11:41:13Z</time></trkpt><trkpt lat="41.81131560854453" lon="0.8678214869681229"><ele>249.2</ele><time>2026-03-30T11:41:15Z</time></trkpt><trkpt lat="41.81136618963193" lon="0.8677344575535905"><ele>249.0</ele><time>2026-03-30T11:41:17Z</time></trkpt><trkpt lat="41.81133965627009" lon="0.8674726522045353"><ele>248.33333333333331</ele><time>2026-03-30T11:41:19Z</time></trkpt><trkpt lat="41.811286135240934" lon="0.8673137324840182"><ele>247.66666666666666</ele><time>2026-03-30T11:41:20Z</time></trkpt><trkpt lat="41.81121913352487" lon="0.8670770498697038"><ele>247.0</ele><time>2026-03-30T11:41:21Z</time></trkpt><trkpt lat="41.81113985679428" lon="0.8668088225963053"><ele>246.66666666666666</ele><time>2026-03-30T11:41:22Z</time></trkpt><trkpt lat="41.81106554910368" lon="0.8665598769229531"><ele>246.33333333333331</ele><time>2026-03-30T11:41:23Z</time></trkpt><trkpt lat="41.81099973033051" lon="0.8663174306581868"><ele>246.0</ele><time>2026-03-30T11:41:24Z</time></trkpt><trkpt lat="41.81093746354092" lon="0.8660686783810059"><ele>246.0</ele><time>2026-03-30T11:41:25Z</time></trkpt><trkpt lat="41.810870502175504" lon="0.8658160440595614"><ele>246.0</ele><time>2026-03-30T11:41:26Z</time></trkpt><trkpt lat="41.81080212920985" lon="0.8655725945909359"><ele>246.0</ele><time>2026-03-30T11:41:27Z</time></trkpt><trkpt lat="41.81074124574992" lon="0.8653528184018705"><ele>246.0</ele><time>2026-03-30T11:41:28Z</time></trkpt><trkpt lat="41.81067884562731" lon="0.8651305071001127"><ele>246.0</ele><time>2026-03-30T11:41:29Z</time></trkpt><trkpt lat="41.81061795259896" lon="0.864917256272671"><ele>246.0</ele><time>2026-03-30T11:41:30Z</time></trkpt><trkpt lat="41.81055981807587" lon="0.8647067591237787"><ele>246.33333333333331</ele><time>2026-03-30T11:41:31Z</time></trkpt><trkpt lat="41.81050021008685" lon="0.8644991758454535"><ele>246.66666666666666</ele><time>2026-03-30T11:41:32Z</time></trkpt><trkpt lat="41.81043571014785" lon="0.8642909727677841"><ele>247.0</ele><time>2026-03-30T11:41:33Z</time></trkpt><trkpt lat="41.810374505226484" lon="0.864073688275693"><ele>247.33333333333331</ele><time>2026-03-30T11:41:34Z</time></trkpt><trkpt lat="41.8103156870062" lon="0.863853892518229"><ele>247.66666666666669</ele><time>2026-03-30T11:41:35Z</time></trkpt><trkpt lat="41.81025591372261" lon="0.8636381330723818"><ele>248.0</ele><time>2026-03-30T11:41:36Z</time></trkpt><trkpt lat="41.81019380397588" lon="0.8634219935116144"><ele>246.66666666666669</ele><time>2026-03-30T11:41:37Z</time></trkpt><trkpt lat="41.810130971554486" lon="0.8631983341394528"><ele>245.33333333333331</ele><time>2026-03-30T11:41:38Z</time></trkpt><trkpt lat="41.81007102854673" lon="0.8629559000180619"><ele>244.0</ele><time>2026-03-30T11:41:39Z</time></trkpt><trkpt lat="41.81000085335848" lon="0.862706565857091"><ele>244.0</ele><time>2026-03-30T11:41:40Z</time></trkpt><trkpt lat="41.80991865482767" lon="0.8624404316303772"><ele>244.0</ele><time>2026-03-30T11:41:41Z</time></trkpt><trkpt lat="41.809838474620015" lon="0.8621585185320136"><ele>244.0</ele><time>2026-03-30T11:41:42Z</time></trkpt><trkpt lat="41.809758126417876" lon="0.8618668634131564"><ele>244.0</ele><time>2026-03-30T11:41:43Z</time></trkpt><trkpt lat="41.80966192198634" lon="0.8615539279615495"><ele>244.0</ele><time>2026-03-30T11:41:44Z</time></trkpt><trkpt lat="41.809559365056586" lon="0.8612288783212367"><ele>244.5</ele><time>2026-03-30T11:41:45Z</time></trkpt><trkpt lat="41.809450441728124" lon="0.8608908801359683"><ele>245.0</ele><time>2026-03-30T11:41:46Z</time></trkpt><trkpt lat="41.809339602862146" lon="0.8605338174372181"><ele>243.5</ele><time>2026-03-30T11:41:47Z</time></trkpt><trkpt lat="41.80923992244132" lon="0.8601263861783986"><ele>242.0</ele><time>2026-03-30T11:41:48Z</time></trkpt><trkpt lat="41.80912096144526" lon="0.8597077468356965"><ele>241.5</ele><time>2026-03-30T11:41:49Z</time></trkpt><trkpt lat="41.80900072662462" lon="0.8593042543677407"><ele>241.0</ele><time>2026-03-30T11:41:50Z</time></trkpt><trkpt lat="41.808921001931175" lon="0.8589387800711877"><ele>242.0</ele><time>2026-03-30T11:41:51Z</time></trkpt><trkpt lat="41.808851209375504" lon="0.8585773606255198"><ele>243.0</ele><time>2026-03-30T11:41:52Z</time></trkpt><trkpt lat="41.808777240770375" lon="0.8581972679929575"><ele>245.5</ele><time>2026-03-30T11:41:53Z</time></trkpt><trkpt lat="41.808725834703395" lon="0.8578042917878612"><ele>248.0</ele><time>2026-03-30T11:41:54Z</time></trkpt><trkpt lat="41.8087106796356" lon="0.8574172706865737"><ele>250.5</ele><time>2026-03-30T11:41:55Z</time></trkpt><trkpt lat="41.808696863888734" lon="0.8570380234576623"><ele>253.0</ele><time>2026-03-30T11:41:56Z</time></trkpt><trkpt lat="41.80866601744139" lon="0.8566443521790026"><ele>253.0</ele><time>2026-03-30T11:41:57Z</time></trkpt><trkpt lat="41.80862900248996" lon="0.8562407770273585"><ele>253.0</ele><time>2026-03-30T11:41:58Z</time></trkpt><trkpt lat="41.80859734945886" lon="0.8558544235771894"><ele>253.0</ele><time>2026-03-30T11:41:59Z</time></trkpt><trkpt lat="41.808564502488935" lon="0.855478691783699"><ele>253.0</ele><time>2026-03-30T11:42:00Z</time></trkpt><trkpt lat="41.80852071913016" lon="0.855108789699735"><ele>248.0</ele><time>2026-03-30T11:42:01Z</time></trkpt><trkpt lat="41.80845770111702" lon="0.8547483763991022"><ele>243.0</ele><time>2026-03-30T11:42:02Z</time></trkpt><trkpt lat="41.80836757426863" lon="0.85440169411853"><ele>245.0</ele><time>2026-03-30T11:42:03Z</time></trkpt><trkpt lat="41.808244871265025" lon="0.8540619391207733"><ele>247.0</ele><time>2026-03-30T11:42:04Z</time></trkpt><trkpt lat="41.80809581224992" lon="0.8537178473106879"><ele>249.0</ele><time>2026-03-30T11:42:05Z</time></trkpt><trkpt lat="41.8079760568479" lon="0.8533684968008706"><ele>251.0</ele><time>2026-03-30T11:42:06Z</time></trkpt><trkpt lat="41.807860925241044" lon="0.8530213792161637"><ele>251.0</ele><time>2026-03-30T11:42:07Z</time></trkpt><trkpt lat="41.80774373676283" lon="0.8526859467467977"><ele>251.0</ele><time>2026-03-30T11:42:08Z</time></trkpt><trkpt lat="41.80762101883302" lon="0.8523577917138198"><ele>248.5</ele><time>2026-03-30T11:42:09Z</time></trkpt><trkpt lat="41.80750040600794" lon="0.8520345647112577"><ele>246.0</ele><time>2026-03-30T11:42:10Z</time></trkpt><trkpt lat="41.807379606682396" lon="0.8517145143252234"><ele>246.0</ele><time>2026-03-30T11:42:11Z</time></trkpt><trkpt lat="41.80726243698354" lon="0.8513904016592184"><ele>246.0</ele><time>2026-03-30T11:42:12Z</time></trkpt><trkpt lat="41.80714782802286" lon="0.85106718435658"><ele>248.5</ele><time>2026-03-30T11:42:13Z</time></trkpt><trkpt lat="41.80703513798719" lon="0.850753510409418"><ele>251.0</ele><time>2026-03-30T11:42:14Z</time></trkpt><trkpt lat="41.806914355007166" lon="0.850443319843335"><ele>246.5</ele><time>2026-03-30T11:42:15Z</time></trkpt><trkpt lat="41.80679601326466" lon="0.8501542767076311"><ele>242.0</ele><time>2026-03-30T11:42:16Z</time></trkpt><trkpt lat="41.80666863684523" lon="0.8498668464318226"><ele>242.0</ele><time>2026-03-30T11:42:17Z</time></trkpt><trkpt lat="41.806542661400144" lon="0.8495834728084558"><ele>242.0</ele><time>2026-03-30T11:42:18Z</time></trkpt><trkpt lat="41.80642148602819" lon="0.8492962338434166"><ele>243.0</ele><time>2026-03-30T11:42:19Z</time></trkpt><trkpt lat="41.806302392910716" lon="0.8490019162300686"><ele>244.0</ele><time>2026-03-30T11:42:20Z</time></trkpt><trkpt lat="41.806178317681116" lon="0.8487137378002544"><ele>244.5</ele><time>2026-03-30T11:42:21Z</time></trkpt><trkpt lat="41.806043752511414" lon="0.8484231624103915"><ele>245.0</ele><time>2026-03-30T11:42:22Z</time></trkpt><trkpt lat="41.805905175046476" lon="0.8481342882407119"><ele>244.0</ele><time>2026-03-30T11:42:23Z</time></trkpt><trkpt lat="41.805775048908494" lon="0.8478497538602534"><ele>243.0</ele><time>2026-03-30T11:42:24Z</time></trkpt><trkpt lat="41.80564735698344" lon="0.8475702940181317"><ele>243.0</ele><time>2026-03-30T11:42:25Z</time></trkpt><trkpt lat="41.805517714400814" lon="0.8472929025423065"><ele>243.0</ele><time>2026-03-30T11:42:26Z</time></trkpt><trkpt lat="41.80538833051175" lon="0.8470200996537378"><ele>241.5</ele><time>2026-03-30T11:42:27Z</time></trkpt><trkpt lat="41.8052580692252" lon="0.8467486108177239"><ele>240.0</ele><time>2026-03-30T11:42:28Z</time></trkpt><trkpt lat="41.805122946461026" lon="0.846479420245232"><ele>240.0</ele><time>2026-03-30T11:42:29Z</time></trkpt><trkpt lat="41.80498487020303" lon="0.8462163536477652"><ele>240.0</ele><time>2026-03-30T11:42:30Z</time></trkpt><trkpt lat="41.80486090632234" lon="0.8459762485703881"><ele>240.66666666666669</ele><time>2026-03-30T11:42:31Z</time></trkpt><trkpt lat="41.8047250685225" lon="0.8457547260257938"><ele>241.33333333333334</ele><time>2026-03-30T11:42:32Z</time></trkpt><trkpt lat="41.804558133410765" lon="0.8455766977414078"><ele>242.0</ele><time>2026-03-30T11:42:33Z</time></trkpt><trkpt lat="41.804348185380114" lon="0.8454760799630993"><ele>239.66666666666669</ele><time>2026-03-30T11:42:34Z</time></trkpt><trkpt lat="41.804139114339186" lon="0.8454262419802786"><ele>237.33333333333331</ele><time>2026-03-30T11:42:35Z</time></trkpt><trkpt lat="41.80392318938814" lon="0.8454439527968464"><ele>235.0</ele><time>2026-03-30T11:42:36Z</time></trkpt><trkpt lat="41.803711871948565" lon="0.8454842223768159"><ele>234.66666666666666</ele><time>2026-03-30T11:42:37Z</time></trkpt><trkpt lat="41.803485778970796" lon="0.845528225898268"><ele>234.33333333333331</ele><time>2026-03-30T11:42:38Z</time></trkpt><trkpt lat="41.803274051873224" lon="0.8455539331694246"><ele>234.0</ele><time>2026-03-30T11:42:39Z</time></trkpt><trkpt lat="41.80308202456959" lon="0.8455717152698075"><ele>234.0</ele><time>2026-03-30T11:42:40Z</time></trkpt><trkpt lat="41.80290846459808" lon="0.8455736997253536"><ele>234.0</ele><time>2026-03-30T11:42:41Z</time></trkpt><trkpt lat="41.80273962934782" lon="0.8455512425110714"><ele>234.0</ele><time>2026-03-30T11:42:42Z</time></trkpt><trkpt lat="41.80257016836297" lon="0.8454996570361423"><ele>234.33333333333331</ele><time>2026-03-30T11:42:43Z</time></trkpt><trkpt lat="41.80239394548127" lon="0.8454094757022165"><ele>234.66666666666666</ele><time>2026-03-30T11:42:44Z</time></trkpt><trkpt lat="41.80223292363129" lon="0.8452743013273246"><ele>235.0</ele><time>2026-03-30T11:42:45Z</time></trkpt><trkpt lat="41.80208967180244" lon="0.845093624506777"><ele>235.0</ele><time>2026-03-30T11:42:46Z</time></trkpt><trkpt lat="41.80196884108378" lon="0.8448765345691706"><ele>235.0</ele><time>2026-03-30T11:42:47Z</time></trkpt><trkpt lat="41.80186755620065" lon="0.8446196342353447"><ele>235.0</ele><time>2026-03-30T11:42:48Z</time></trkpt><trkpt lat="41.80177368250416" lon="0.8443199817431415"><ele>238.0</ele><time>2026-03-30T11:42:49Z</time></trkpt><trkpt lat="41.801683121747885" lon="0.8440248926182113"><ele>241.0</ele><time>2026-03-30T11:42:50Z</time></trkpt><trkpt lat="41.80159102442011" lon="0.8437486818950378"><ele>241.0</ele><time>2026-03-30T11:42:51Z</time></trkpt><trkpt lat="41.801498033167505" lon="0.8434679363856402"><ele>241.0</ele><time>2026-03-30T11:42:52Z</time></trkpt><trkpt lat="41.80140075048597" lon="0.8431897285799594"><ele>240.0</ele><time>2026-03-30T11:42:53Z</time></trkpt><trkpt lat="41.80128971535321" lon="0.842920404004079"><ele>239.0</ele><time>2026-03-30T11:42:54Z</time></trkpt><trkpt lat="41.80115605960971" lon="0.842673531302183"><ele>242.0</ele><time>2026-03-30T11:42:55Z</time></trkpt><trkpt lat="41.80098935800373" lon="0.8424592166588684"><ele>245.0</ele><time>2026-03-30T11:42:56Z</time></trkpt><trkpt lat="41.80078849960367" lon="0.8422943741535506"><ele>245.0</ele><time>2026-03-30T11:42:57Z</time></trkpt><trkpt lat="41.800573522120395" lon="0.8421770966401381"><ele>245.0</ele><time>2026-03-30T11:42:58Z</time></trkpt><trkpt lat="41.80035067688837" lon="0.8420799716236963"><ele>247.0</ele><time>2026-03-30T11:42:59Z</time></trkpt><trkpt lat="41.800120226531995" lon="0.8419911668577361"><ele>249.0</ele><time>2026-03-30T11:43:00Z</time></trkpt><trkpt lat="41.799878718947646" lon="0.8419141310931751"><ele>249.0</ele><time>2026-03-30T11:43:01Z</time></trkpt><trkpt lat="41.79964553184268" lon="0.8418325137592929"><ele>249.0</ele><time>2026-03-30T11:43:02Z</time></trkpt><trkpt lat="41.79942281280423" lon="0.8417266695808684"><ele>252.5</ele><time>2026-03-30T11:43:03Z</time></trkpt><trkpt lat="41.79920996496916" lon="0.8415919569592318"><ele>256.0</ele><time>2026-03-30T11:43:04Z</time></trkpt><trkpt lat="41.799002630026614" lon="0.8414502768244801"><ele>256.0</ele><time>2026-03-30T11:43:05Z</time></trkpt><trkpt lat="41.798795398425774" lon="0.8413064433129885"><ele>256.0</ele><time>2026-03-30T11:43:06Z</time></trkpt><trkpt lat="41.79858447761849" lon="0.841176697816829"><ele>257.0</ele><time>2026-03-30T11:43:07Z</time></trkpt><trkpt lat="41.7983739658401" lon="0.841046384491488"><ele>258.0</ele><time>2026-03-30T11:43:08Z</time></trkpt><trkpt lat="41.79816747097274" lon="0.840906151653411"><ele>260.0</ele><time>2026-03-30T11:43:09Z</time></trkpt><trkpt lat="41.79796083686203" lon="0.8407583141031791"><ele>262.0</ele><time>2026-03-30T11:43:10Z</time></trkpt><trkpt lat="41.79775151519134" lon="0.8405937513747594"><ele>264.5</ele><time>2026-03-30T11:43:11Z</time></trkpt><trkpt lat="41.79755846645529" lon="0.8404061335369756"><ele>267.0</ele><time>2026-03-30T11:43:12Z</time></trkpt><trkpt lat="41.7973864441308" lon="0.8401796231878118"><ele>266.0</ele><time>2026-03-30T11:43:13Z</time></trkpt><trkpt lat="41.79722422934567" lon="0.8399433638260404"><ele>265.0</ele><time>2026-03-30T11:43:14Z</time></trkpt><trkpt lat="41.79705733671318" lon="0.8397145154398012"><ele>265.0</ele><time>2026-03-30T11:43:15Z</time></trkpt><trkpt lat="41.796884102824954" lon="0.8394879414827975"><ele>265.0</ele><time>2026-03-30T11:43:16Z</time></trkpt><trkpt lat="41.79670829050621" lon="0.8392644468345073"><ele>265.0</ele><time>2026-03-30T11:43:17Z</time></trkpt><trkpt lat="41.79653824590086" lon="0.8390386122685837"><ele>265.0</ele><time>2026-03-30T11:43:18Z</time></trkpt><trkpt lat="41.79636781081677" lon="0.8388123774652693"><ele>265.0</ele><time>2026-03-30T11:43:19Z</time></trkpt><trkpt lat="41.79619331324468" lon="0.8385886034759651"><ele>265.0</ele><time>2026-03-30T11:43:20Z</time></trkpt><trkpt lat="41.796015288840856" lon="0.8383604722865801"><ele>263.0</ele><time>2026-03-30T11:43:21Z</time></trkpt><trkpt lat="41.79583853252066" lon="0.8381266863619756"><ele>261.0</ele><time>2026-03-30T11:43:22Z</time></trkpt><trkpt lat="41.79565669536763" lon="0.8378898215099612"><ele>261.0</ele><time>2026-03-30T11:43:23Z</time></trkpt><trkpt lat="41.79547133547422" lon="0.8376523697949088"><ele>261.0</ele><time>2026-03-30T11:43:24Z</time></trkpt><trkpt lat="41.79528498450657" lon="0.8374124170666348"><ele>257.5</ele><time>2026-03-30T11:43:25Z</time></trkpt><trkpt lat="41.79510035320786" lon="0.8371684927948838"><ele>254.0</ele><time>2026-03-30T11:43:26Z</time></trkpt><trkpt lat="41.79491596082025" lon="0.8369260319457793"><ele>252.5</ele><time>2026-03-30T11:43:27Z</time></trkpt><trkpt lat="41.79473303613661" lon="0.8366830220386041"><ele>251.0</ele><time>2026-03-30T11:43:28Z</time></trkpt><trkpt lat="41.79455100432582" lon="0.8364394536657115"><ele>251.0</ele><time>2026-03-30T11:43:29Z</time></trkpt><trkpt lat="41.794362962162744" lon="0.8362104749527917"><ele>251.0</ele><time>2026-03-30T11:43:30Z</time></trkpt><trkpt lat="41.79418022280794" lon="0.8359639750823054"><ele>249.0</ele><time>2026-03-30T11:43:31Z</time></trkpt><trkpt lat="41.7939875714043" lon="0.835711869702978"><ele>247.0</ele><time>2026-03-30T11:43:32Z</time></trkpt><trkpt lat="41.793795482600096" lon="0.8354563415207091"><ele>247.0</ele><time>2026-03-30T11:43:33Z</time></trkpt><trkpt lat="41.79360034400847" lon="0.8352056570353268"><ele>247.0</ele><time>2026-03-30T11:43:34Z</time></trkpt><trkpt lat="41.79341659138989" lon="0.8349666136326032"><ele>245.0</ele><time>2026-03-30T11:43:35Z</time></trkpt><trkpt lat="41.79323129404821" lon="0.8347380443749352"><ele>243.0</ele><time>2026-03-30T11:43:36Z</time></trkpt><trkpt lat="41.793052185511144" lon="0.8345134903016611"><ele>244.0</ele><time>2026-03-30T11:43:37Z</time></trkpt><trkpt lat="41.792873100835706" lon="0.8342939329917592"><ele>245.0</ele><time>2026-03-30T11:43:38Z</time></trkpt><trkpt lat="41.79268683099098" lon="0.8340773358739327"><ele>244.0</ele><time>2026-03-30T11:43:39Z</time></trkpt><trkpt lat="41.79248934041805" lon="0.8338691977463113"><ele>243.0</ele><time>2026-03-30T11:43:40Z</time></trkpt><trkpt lat="41.792289491125665" lon="0.8336661089535897"><ele>244.5</ele><time>2026-03-30T11:43:41Z</time></trkpt><trkpt lat="41.792085315850535" lon="0.8334662760236579"><ele>246.0</ele><time>2026-03-30T11:43:42Z</time></trkpt><trkpt lat="41.791871519902095" lon="0.8332592415546505"><ele>243.5</ele><time>2026-03-30T11:43:43Z</time></trkpt><trkpt lat="41.79166358233007" lon="0.8330564163327369"><ele>241.0</ele><time>2026-03-30T11:43:44Z</time></trkpt><trkpt lat="41.79146555925054" lon="0.8328575672372132"><ele>241.0</ele><time>2026-03-30T11:43:45Z</time></trkpt><trkpt lat="41.79126851321289" lon="0.8326641428949383"><ele>241.0</ele><time>2026-03-30T11:43:46Z</time></trkpt><trkpt lat="41.79107383697619" lon="0.8324686671811313"><ele>241.5</ele><time>2026-03-30T11:43:47Z</time></trkpt><trkpt lat="41.79088095688852" lon="0.8322724674113583"><ele>242.0</ele><time>2026-03-30T11:43:48Z</time></trkpt><trkpt lat="41.790687666032284" lon="0.8320791231864175"><ele>242.0</ele><time>2026-03-30T11:43:49Z</time></trkpt><trkpt lat="41.79049365116394" lon="0.8318890787910275"><ele>242.0</ele><time>2026-03-30T11:43:50Z</time></trkpt><trkpt lat="41.79029884069655" lon="0.8316983749539681"><ele>242.0</ele><time>2026-03-30T11:43:51Z</time></trkpt><trkpt lat="41.79009921747929" lon="0.8314991227177522"><ele>242.0</ele><time>2026-03-30T11:43:52Z</time></trkpt><trkpt lat="41.789886566376346" lon="0.831285480279799"><ele>242.0</ele><time>2026-03-30T11:43:53Z</time></trkpt><trkpt lat="41.789668648823906" lon="0.8310670461158716"><ele>242.0</ele><time>2026-03-30T11:43:54Z</time></trkpt><trkpt lat="41.789453975188636" lon="0.8308594814820202"><ele>242.0</ele><time>2026-03-30T11:43:55Z</time></trkpt><trkpt lat="41.78924474698734" lon="0.830655072337282"><ele>242.0</ele><time>2026-03-30T11:43:56Z</time></trkpt><trkpt lat="41.78903773448101" lon="0.830450131129809"><ele>242.0</ele><time>2026-03-30T11:43:57Z</time></trkpt><trkpt lat="41.788833217094194" lon="0.8302492067379483"><ele>242.0</ele><time>2026-03-30T11:43:58Z</time></trkpt><trkpt lat="41.78862707749852" lon="0.8300474470791948"><ele>242.0</ele><time>2026-03-30T11:43:59Z</time></trkpt><trkpt lat="41.788426382890975" lon="0.8298515905378251"><ele>242.0</ele><time>2026-03-30T11:44:00Z</time></trkpt><trkpt lat="41.788226884273925" lon="0.829654965300805"><ele>242.0</ele><time>2026-03-30T11:44:01Z</time></trkpt><trkpt lat="41.78803542483664" lon="0.8294627407551532"><ele>242.0</ele><time>2026-03-30T11:44:02Z</time></trkpt><trkpt lat="41.787845073881094" lon="0.8292773098176974"><ele>242.33333333333334</ele><time>2026-03-30T11:44:03Z</time></trkpt><trkpt lat="41.78766156197974" lon="0.8290948709456858"><ele>242.66666666666669</ele><time>2026-03-30T11:44:04Z</time></trkpt><trkpt lat="41.787494044550165" lon="0.8289188824720104"><ele>243.0</ele><time>2026-03-30T11:44:05Z</time></trkpt><trkpt lat="41.78733858345287" lon="0.828764524689058"><ele>243.0</ele><time>2026-03-30T11:44:06Z</time></trkpt><trkpt lat="41.78719693264448" lon="0.8286195443803639"><ele>243.0</ele><time>2026-03-30T11:44:07Z</time></trkpt><trkpt lat="41.7870663105129" lon="0.8284768794064684"><ele>243.0</ele><time>2026-03-30T11:44:08Z</time></trkpt><trkpt lat="41.78695543142949" lon="0.8283404666113572"><ele>242.25</ele><time>2026-03-30T11:44:09Z</time></trkpt><trkpt lat="41.78686545905448" lon="0.8282133864660689"><ele>241.5</ele><time>2026-03-30T11:44:10Z</time></trkpt><trkpt lat="41.786787678065345" lon="0.8280938763442224"><ele>240.75</ele><time>2026-03-30T11:44:11Z</time></trkpt><trkpt lat="41.78673474463518" lon="0.8279787787184412"><ele>240.0</ele><time>2026-03-30T11:44:12Z</time></trkpt><trkpt lat="41.78668887547509" lon="0.8278260456272291"><ele>240.0</ele><time>2026-03-30T11:44:16Z</time></trkpt><trkpt lat="41.78665719556286" lon="0.8277133526975378"><ele>240.0</ele><time>2026-03-30T11:44:17Z</time></trkpt><trkpt lat="41.78662164333139" lon="0.8276377880621503"><ele>240.0</ele><time>2026-03-30T11:44:18Z</time></trkpt><trkpt lat="41.786546045337616" lon="0.8275682376680825"><ele>240.0</ele><time>2026-03-30T11:44:19Z</time></trkpt><trkpt lat="41.7864412618555" lon="0.8275472538875117"><ele>240.0</ele><time>2026-03-30T11:44:20Z</time></trkpt><trkpt lat="41.78629015740166" lon="0.8275635040686362"><ele>240.0</ele><time>2026-03-30T11:44:21Z</time></trkpt><trkpt lat="41.78613632704808" lon="0.8275799138238071"><ele>240.0</ele><time>2026-03-30T11:44:22Z</time></trkpt><trkpt lat="41.78599095831268" lon="0.8275471748047801"><ele>240.0</ele><time>2026-03-30T11:44:23Z</time></trkpt><trkpt lat="41.78585393737998" lon="0.8274691165317083"><ele>240.33333333333331</ele><time>2026-03-30T11:44:24Z</time></trkpt><trkpt lat="41.785713534445186" lon="0.8273860772297854"><ele>240.66666666666666</ele><time>2026-03-30T11:44:25Z</time></trkpt><trkpt lat="41.78553218073199" lon="0.8272943159488853"><ele>241.0</ele><time>2026-03-30T11:44:26Z</time></trkpt><trkpt lat="41.78533753705392" lon="0.8271760849163786"><ele>240.66666666666666</ele><time>2026-03-30T11:44:27Z</time></trkpt><trkpt lat="41.785171068534225" lon="0.8270645566183921"><ele>240.33333333333331</ele><time>2026-03-30T11:44:28Z</time></trkpt><trkpt lat="41.785002023138546" lon="0.8269610780944775"><ele>240.0</ele><time>2026-03-30T11:44:29Z</time></trkpt><trkpt lat="41.7848313422582" lon="0.8268556623191237"><ele>239.33333333333331</ele><time>2026-03-30T11:44:30Z</time></trkpt><trkpt lat="41.78465756151904" lon="0.8267458235159998"><ele>238.66666666666666</ele><time>2026-03-30T11:44:31Z</time></trkpt><trkpt lat="41.78447033459261" lon="0.8266176992771834"><ele>238.0</ele><time>2026-03-30T11:44:32Z</time></trkpt><trkpt lat="41.784258305915145" lon="0.826481947453416"><ele>237.0</ele><time>2026-03-30T11:44:33Z</time></trkpt><trkpt lat="41.7840389351742" lon="0.8263319360447468"><ele>236.0</ele><time>2026-03-30T11:44:34Z</time></trkpt><trkpt lat="41.783832055191134" lon="0.8261871001160703"><ele>236.0</ele><time>2026-03-30T11:44:35Z</time></trkpt><trkpt lat="41.78362058935046" lon="0.8260528168725728"><ele>236.0</ele><time>2026-03-30T11:44:36Z</time></trkpt><trkpt lat="41.783406719149326" lon="0.8259236420127841"><ele>238.5</ele><time>2026-03-30T11:44:37Z</time></trkpt><trkpt lat="41.78319609690552" lon="0.825784363815651"><ele>241.0</ele><time>2026-03-30T11:44:38Z</time></trkpt><trkpt lat="41.7829872071696" lon="0.8256384032756992"><ele>241.0</ele><time>2026-03-30T11:44:39Z</time></trkpt><trkpt lat="41.78279346370702" lon="0.8255091608115316"><ele>241.0</ele><time>2026-03-30T11:44:40Z</time></trkpt><trkpt lat="41.78261942673028" lon="0.8253972316731978"><ele>241.0</ele><time>2026-03-30T11:44:41Z</time></trkpt><trkpt lat="41.78245974767113" lon="0.8252895108427558"><ele>240.66666666666666</ele><time>2026-03-30T11:44:42Z</time></trkpt><trkpt lat="41.782313604005886" lon="0.825181416689624"><ele>240.33333333333331</ele><time>2026-03-30T11:44:43Z</time></trkpt><trkpt lat="41.782175972151194" lon="0.8250825122425449"><ele>240.0</ele><time>2026-03-30T11:44:44Z</time></trkpt><trkpt lat="41.7820438740784" lon="0.8249967498448452"><ele>239.5</ele><time>2026-03-30T11:44:45Z</time></trkpt><trkpt lat="41.7819265673441" lon="0.8249090906795579"><ele>239.0</ele><time>2026-03-30T11:44:46Z</time></trkpt><trkpt lat="41.781849219730525" lon="0.8247816036020439"><ele>238.5</ele><time>2026-03-30T11:44:47Z</time></trkpt><trkpt lat="41.78180096882424" lon="0.8246076450067024"><ele>238.0</ele><time>2026-03-30T11:44:48Z</time></trkpt><trkpt lat="41.781815652608735" lon="0.8244061661841946"><ele>238.0</ele><time>2026-03-30T11:44:49Z</time></trkpt><trkpt lat="41.781879914539786" lon="0.8242279616492196"><ele>238.0</ele><time>2026-03-30T11:44:50Z</time></trkpt><trkpt lat="41.781984170381925" lon="0.8240611507596474"><ele>238.0</ele><time>2026-03-30T11:44:51Z</time></trkpt><trkpt lat="41.782115276219024" lon="0.8239234572986427"><ele>238.0</ele><time>2026-03-30T11:44:52Z</time></trkpt><trkpt lat="41.78226810738253" lon="0.8238257489025196"><ele>238.0</ele><time>2026-03-30T11:44:53Z</time></trkpt><trkpt lat="41.78244324874832" lon="0.8237781147620292"><ele>238.0</ele><time>2026-03-30T11:44:54Z</time></trkpt><trkpt lat="41.78260700487992" lon="0.8238141145871372"><ele>238.2</ele><time>2026-03-30T11:44:55Z</time></trkpt><trkpt lat="41.782729947117865" lon="0.8238802705076563"><ele>238.4</ele><time>2026-03-30T11:44:56Z</time></trkpt><trkpt lat="41.78281865099187" lon="0.8239252105499674"><ele>238.59999999999997</ele><time>2026-03-30T11:44:57Z</time></trkpt><trkpt lat="41.78287950789335" lon="0.823948433406978"><ele>238.79999999999998</ele><time>2026-03-30T11:44:58Z</time></trkpt><trkpt lat="41.7829456832891" lon="0.8239409974953943"><ele>239.0</ele><time>2026-03-30T11:45:01Z</time></trkpt><trkpt lat="41.78303693457481" lon="0.8238821414088577"><ele>239.0</ele><time>2026-03-30T11:45:05Z</time></trkpt><trkpt lat="41.78306666238784" lon="0.8237871340929384"><ele>238.99999999999997</ele><time>2026-03-30T11:45:06Z</time></trkpt><trkpt lat="41.78306795931957" lon="0.8236168176505659"><ele>238.99999999999997</ele><time>2026-03-30T11:45:08Z</time></trkpt><trkpt lat="41.78307163810839" lon="0.8235156746536964"><ele>239.0</ele><time>2026-03-30T11:45:09Z</time></trkpt><trkpt lat="41.78308083416312" lon="0.823388422700527"><ele>239.0</ele><time>2026-03-30T11:45:10Z</time></trkpt><trkpt lat="41.783092476077094" lon="0.8232486994419331"><ele>239.25</ele><time>2026-03-30T11:45:11Z</time></trkpt><trkpt lat="41.78310774516728" lon="0.8230695439591149"><ele>239.5</ele><time>2026-03-30T11:45:12Z</time></trkpt><trkpt lat="41.78312361691683" lon="0.8228758958562334"><ele>239.75</ele><time>2026-03-30T11:45:13Z</time></trkpt><trkpt lat="41.78314052647544" lon="0.8226860991299478"><ele>240.0</ele><time>2026-03-30T11:45:14Z</time></trkpt><trkpt lat="41.7831602628637" lon="0.8224952081573123"><ele>239.0</ele><time>2026-03-30T11:45:15Z</time></trkpt><trkpt lat="41.78317457264471" lon="0.8222907155024539"><ele>238.0</ele><time>2026-03-30T11:45:16Z</time></trkpt><trkpt lat="41.78318228717157" lon="0.8220768158125923"><ele>237.0</ele><time>2026-03-30T11:45:17Z</time></trkpt><trkpt lat="41.78319007570675" lon="0.8218562573941176"><ele>236.33333333333331</ele><time>2026-03-30T11:45:18Z</time></trkpt><trkpt lat="41.783203325407385" lon="0.821639738209513"><ele>235.66666666666666</ele><time>2026-03-30T11:45:19Z</time></trkpt><trkpt lat="41.78321375366196" lon="0.8214257570043894"><ele>235.0</ele><time>2026-03-30T11:45:20Z</time></trkpt><trkpt lat="41.783219971233294" lon="0.8211999529016903"><ele>235.33333333333331</ele><time>2026-03-30T11:45:21Z</time></trkpt><trkpt lat="41.78322709416157" lon="0.8209792858751279"><ele>235.66666666666669</ele><time>2026-03-30T11:45:22Z</time></trkpt><trkpt lat="41.78323699214017" lon="0.8207580745456405"><ele>236.0</ele><time>2026-03-30T11:45:23Z</time></trkpt><trkpt lat="41.78324842083224" lon="0.8205336342074955"><ele>236.0</ele><time>2026-03-30T11:45:24Z</time></trkpt><trkpt lat="41.78326044518531" lon="0.8202932277694698"><ele>236.0</ele><time>2026-03-30T11:45:25Z</time></trkpt><trkpt lat="41.783263146840746" lon="0.8200269578279614"><ele>236.0</ele><time>2026-03-30T11:45:26Z</time></trkpt><trkpt lat="41.78328339885758" lon="0.8197608248054185"><ele>234.5</ele><time>2026-03-30T11:45:27Z</time></trkpt><trkpt lat="41.78330159217539" lon="0.8194497556420952"><ele>233.0</ele><time>2026-03-30T11:45:28Z</time></trkpt><trkpt lat="41.78330190098845" lon="0.8191011317330243"><ele>231.5</ele><time>2026-03-30T11:45:29Z</time></trkpt><trkpt lat="41.78330828419992" lon="0.818727106873584"><ele>230.0</ele><time>2026-03-30T11:45:30Z</time></trkpt><trkpt lat="41.78332072869653" lon="0.8183891547189861"><ele>228.0</ele><time>2026-03-30T11:45:31Z</time></trkpt><trkpt lat="41.783358362045306" lon="0.8180406481315968"><ele>226.0</ele><time>2026-03-30T11:45:32Z</time></trkpt><trkpt lat="41.78338964040905" lon="0.8176609142653256"><ele>224.0</ele><time>2026-03-30T11:45:33Z</time></trkpt><trkpt lat="41.78341590654127" lon="0.8172814644584896"><ele>222.0</ele><time>2026-03-30T11:45:34Z</time></trkpt><trkpt lat="41.78347643290764" lon="0.8169299424208321"><ele>221.5</ele><time>2026-03-30T11:45:35Z</time></trkpt><trkpt lat="41.78353706203559" lon="0.8165960947256582"><ele>221.0</ele><time>2026-03-30T11:45:36Z</time></trkpt><trkpt lat="41.78358649440991" lon="0.816284288952297"><ele>221.0</ele><time>2026-03-30T11:45:37Z</time></trkpt><trkpt lat="41.7836331585981" lon="0.8159700976243888"><ele>221.0</ele><time>2026-03-30T11:45:38Z</time></trkpt><trkpt lat="41.7836756457772" lon="0.8156645124118328"><ele>221.0</ele><time>2026-03-30T11:45:39Z</time></trkpt><trkpt lat="41.78372148115464" lon="0.8153542699529123"><ele>221.0</ele><time>2026-03-30T11:45:40Z</time></trkpt><trkpt lat="41.78377190715429" lon="0.8150405938993027"><ele>220.5</ele><time>2026-03-30T11:45:41Z</time></trkpt><trkpt lat="41.78382014712225" lon="0.8147223926486651"><ele>220.0</ele><time>2026-03-30T11:45:42Z</time></trkpt><trkpt lat="41.78385665802523" lon="0.8144013005677778"><ele>220.0</ele><time>2026-03-30T11:45:43Z</time></trkpt><trkpt lat="41.783891527777115" lon="0.8140706204645216"><ele>220.0</ele><time>2026-03-30T11:45:44Z</time></trkpt><trkpt lat="41.78392311516181" lon="0.8137346385285098"><ele>220.0</ele><time>2026-03-30T11:45:45Z</time></trkpt><trkpt lat="41.78395509844061" lon="0.8133986953546123"><ele>220.0</ele><time>2026-03-30T11:45:46Z</time></trkpt><trkpt lat="41.78398606276958" lon="0.8130603845194002"><ele>220.0</ele><time>2026-03-30T11:45:47Z</time></trkpt><trkpt lat="41.784010486492186" lon="0.8127158247999031"><ele>220.0</ele><time>2026-03-30T11:45:48Z</time></trkpt><trkpt lat="41.78403003770677" lon="0.812370804842115"><ele>219.0</ele><time>2026-03-30T11:45:49Z</time></trkpt><trkpt lat="41.78405532040398" lon="0.8120171224878396"><ele>218.0</ele><time>2026-03-30T11:45:50Z</time></trkpt><trkpt lat="41.78408278167876" lon="0.8116596038815128"><ele>217.5</ele><time>2026-03-30T11:45:51Z</time></trkpt><trkpt lat="41.78411073938961" lon="0.8113107489711484"><ele>217.0</ele><time>2026-03-30T11:45:52Z</time></trkpt><trkpt lat="41.784132794274356" lon="0.8109687612205985"><ele>216.0</ele><time>2026-03-30T11:45:53Z</time></trkpt><trkpt lat="41.78415469559286" lon="0.8106378447345073"><ele>215.0</ele><time>2026-03-30T11:45:54Z</time></trkpt><trkpt lat="41.78417715769059" lon="0.8103018254720744"><ele>215.0</ele><time>2026-03-30T11:45:55Z</time></trkpt><trkpt lat="41.784202082043045" lon="0.8099662753762209"><ele>215.0</ele><time>2026-03-30T11:45:56Z</time></trkpt><trkpt lat="41.78422617132784" lon="0.8096292633778527"><ele>214.0</ele><time>2026-03-30T11:45:57Z</time></trkpt><trkpt lat="41.784248909429955" lon="0.8092731076720936"><ele>213.0</ele><time>2026-03-30T11:45:58Z</time></trkpt><trkpt lat="41.78427369775751" lon="0.8089389356758593"><ele>213.0</ele><time>2026-03-30T11:45:59Z</time></trkpt><trkpt lat="41.78429468956844" lon="0.8086393687568655"><ele>213.0</ele><time>2026-03-30T11:46:00Z</time></trkpt><trkpt lat="41.78431257562055" lon="0.8083231460731615"><ele>212.5</ele><time>2026-03-30T11:46:01Z</time></trkpt><trkpt lat="41.784316859273474" lon="0.8079939807606668"><ele>212.0</ele><time>2026-03-30T11:46:02Z</time></trkpt><trkpt lat="41.784304850538796" lon="0.8076535686440312"><ele>211.5</ele><time>2026-03-30T11:46:03Z</time></trkpt><trkpt lat="41.784281060943805" lon="0.807316493174277"><ele>211.0</ele><time>2026-03-30T11:46:04Z</time></trkpt><trkpt lat="41.78424840631552" lon="0.8069862796794189"><ele>210.5</ele><time>2026-03-30T11:46:05Z</time></trkpt><trkpt lat="41.78419910010736" lon="0.8066638100024494"><ele>210.0</ele><time>2026-03-30T11:46:06Z</time></trkpt><trkpt lat="41.78412905598585" lon="0.8063504924007927"><ele>210.0</ele><time>2026-03-30T11:46:07Z</time></trkpt><trkpt lat="41.7840482141855" lon="0.806044294980332"><ele>210.0</ele><time>2026-03-30T11:46:08Z</time></trkpt><trkpt lat="41.783951739481004" lon="0.8057555030707957"><ele>211.0</ele><time>2026-03-30T11:46:09Z</time></trkpt><trkpt lat="41.7838486442375" lon="0.8054719942251286"><ele>212.0</ele><time>2026-03-30T11:46:10Z</time></trkpt><trkpt lat="41.783734149346124" lon="0.8051995680469954"><ele>213.0</ele><time>2026-03-30T11:46:11Z</time></trkpt><trkpt lat="41.78360676854495" lon="0.8049384103194372"><ele>214.0</ele><time>2026-03-30T11:46:12Z</time></trkpt><trkpt lat="41.783466699373754" lon="0.8046801580513157"><ele>214.5</ele><time>2026-03-30T11:46:13Z</time></trkpt><trkpt lat="41.78331053143517" lon="0.8044167273757263"><ele>215.0</ele><time>2026-03-30T11:46:14Z</time></trkpt><trkpt lat="41.783149777127015" lon="0.8041685190537425"><ele>216.5</ele><time>2026-03-30T11:46:15Z</time></trkpt><trkpt lat="41.78295632243595" lon="0.8039172003015709"><ele>218.0</ele><time>2026-03-30T11:46:16Z</time></trkpt><trkpt lat="41.78275383524086" lon="0.8036734397121625"><ele>219.0</ele><time>2026-03-30T11:46:17Z</time></trkpt><trkpt lat="41.782541655191" lon="0.803471773851588"><ele>220.0</ele><time>2026-03-30T11:46:18Z</time></trkpt><trkpt lat="41.782319396800865" lon="0.8032783920078476"><ele>220.0</ele><time>2026-03-30T11:46:19Z</time></trkpt><trkpt lat="41.78211077562061" lon="0.8030671881488611"><ele>220.0</ele><time>2026-03-30T11:46:20Z</time></trkpt><trkpt lat="41.78187608836653" lon="0.802920798404068"><ele>219.0</ele><time>2026-03-30T11:46:21Z</time></trkpt><trkpt lat="41.781659240907366" lon="0.8027478907048312"><ele>218.0</ele><time>2026-03-30T11:46:22Z</time></trkpt><trkpt lat="41.78144985606369" lon="0.8025772455121708"><ele>220.5</ele><time>2026-03-30T11:46:23Z</time></trkpt><trkpt lat="41.78124351544037" lon="0.8024092796698735"><ele>223.0</ele><time>2026-03-30T11:46:24Z</time></trkpt><trkpt lat="41.781037562433745" lon="0.802238750294684"><ele>223.0</ele><time>2026-03-30T11:46:25Z</time></trkpt><trkpt lat="41.780835116366966" lon="0.8020730962528878"><ele>223.0</ele><time>2026-03-30T11:46:26Z</time></trkpt><trkpt lat="41.780639069303085" lon="0.8019028494937586"><ele>226.0</ele><time>2026-03-30T11:46:27Z</time></trkpt><trkpt lat="41.78045232298341" lon="0.8017131777036157"><ele>229.0</ele><time>2026-03-30T11:46:28Z</time></trkpt><trkpt lat="41.78027450540863" lon="0.8015010487547236"><ele>228.0</ele><time>2026-03-30T11:46:29Z</time></trkpt><trkpt lat="41.78012345339685" lon="0.8012596361198405"><ele>227.0</ele><time>2026-03-30T11:46:30Z</time></trkpt><trkpt lat="41.7799960721166" lon="0.8009925271148878"><ele>231.0</ele><time>2026-03-30T11:46:31Z</time></trkpt><trkpt lat="41.779906334582755" lon="0.8007001286324437"><ele>235.0</ele><time>2026-03-30T11:46:32Z</time></trkpt><trkpt lat="41.77984418400839" lon="0.8003963586797475"><ele>237.0</ele><time>2026-03-30T11:46:33Z</time></trkpt><trkpt lat="41.77980901472949" lon="0.8000943697872976"><ele>239.0</ele><time>2026-03-30T11:46:34Z</time></trkpt><trkpt lat="41.77979426848795" lon="0.7997758335922498"><ele>239.0</ele><time>2026-03-30T11:46:35Z</time></trkpt><trkpt lat="41.77981357581196" lon="0.7994548738338244"><ele>239.0</ele><time>2026-03-30T11:46:36Z</time></trkpt><trkpt lat="41.77985912747501" lon="0.7991370905428979"><ele>241.0</ele><time>2026-03-30T11:46:37Z</time></trkpt><trkpt lat="41.77994401066215" lon="0.7988281636371137"><ele>243.0</ele><time>2026-03-30T11:46:38Z</time></trkpt><trkpt lat="41.78005879572" lon="0.7985367465183749"><ele>246.0</ele><time>2026-03-30T11:46:39Z</time></trkpt><trkpt lat="41.78019295687192" lon="0.7982355368064462"><ele>249.0</ele><time>2026-03-30T11:46:40Z</time></trkpt><trkpt lat="41.780340722174635" lon="0.7979329799681366"><ele>250.5</ele><time>2026-03-30T11:46:41Z</time></trkpt><trkpt lat="41.780489978937496" lon="0.7976397342658824"><ele>252.0</ele><time>2026-03-30T11:46:42Z</time></trkpt><trkpt lat="41.78063458291592" lon="0.7973350584283636"><ele>252.0</ele><time>2026-03-30T11:46:43Z</time></trkpt><trkpt lat="41.78077577263197" lon="0.7970366732397008"><ele>252.0</ele><time>2026-03-30T11:46:44Z</time></trkpt><trkpt lat="41.780921474819756" lon="0.7967360432135238"><ele>256.0</ele><time>2026-03-30T11:46:45Z</time></trkpt><trkpt lat="41.781065786111554" lon="0.7964377576662836"><ele>260.0</ele><time>2026-03-30T11:46:46Z</time></trkpt><trkpt lat="41.78120812535485" lon="0.7961466919178563"><ele>259.5</ele><time>2026-03-30T11:46:47Z</time></trkpt><trkpt lat="41.781355088991006" lon="0.7958550898482312"><ele>259.0</ele><time>2026-03-30T11:46:48Z</time></trkpt><trkpt lat="41.78148494611854" lon="0.7955759286756194"><ele>259.0</ele><time>2026-03-30T11:46:49Z</time></trkpt><trkpt lat="41.781614991477625" lon="0.7953012210932086"><ele>259.0</ele><time>2026-03-30T11:46:50Z</time></trkpt><trkpt lat="41.781753229401005" lon="0.79502428684405"><ele>261.5</ele><time>2026-03-30T11:46:51Z</time></trkpt><trkpt lat="41.781897655390324" lon="0.7947514229053252"><ele>264.0</ele><time>2026-03-30T11:46:52Z</time></trkpt><trkpt lat="41.78205372429759" lon="0.7944794905130595"><ele>264.0</ele><time>2026-03-30T11:46:53Z</time></trkpt><trkpt lat="41.78222845209706" lon="0.7942069485384188"><ele>264.0</ele><time>2026-03-30T11:46:54Z</time></trkpt><trkpt lat="41.782421276142344" lon="0.793952464738543"><ele>264.0</ele><time>2026-03-30T11:46:55Z</time></trkpt><trkpt lat="41.7826269347422" lon="0.7937280470469811"><ele>264.0</ele><time>2026-03-30T11:46:56Z</time></trkpt><trkpt lat="41.78283931207088" lon="0.7935014976161908"><ele>264.0</ele><time>2026-03-30T11:46:57Z</time></trkpt><trkpt lat="41.78306122439659" lon="0.7933231023520979"><ele>264.0</ele><time>2026-03-30T11:46:58Z</time></trkpt><trkpt lat="41.78328442352733" lon="0.7931519081392353"><ele>265.0</ele><time>2026-03-30T11:46:59Z</time></trkpt><trkpt lat="41.78351834133512" lon="0.7930023873930544"><ele>266.0</ele><time>2026-03-30T11:47:00Z</time></trkpt><trkpt lat="41.78375843774061" lon="0.7928751926978739"><ele>266.0</ele><time>2026-03-30T11:47:01Z</time></trkpt><trkpt lat="41.783999917437214" lon="0.7927602544510635"><ele>266.0</ele><time>2026-03-30T11:47:02Z</time></trkpt><trkpt lat="41.784242457842595" lon="0.7926567557690443"><ele>266.0</ele><time>2026-03-30T11:47:03Z</time></trkpt><trkpt lat="41.78448290872763" lon="0.7925536950442655"><ele>266.0</ele><time>2026-03-30T11:47:04Z</time></trkpt><trkpt lat="41.78472095281212" lon="0.7924468540072962"><ele>266.0</ele><time>2026-03-30T11:47:05Z</time></trkpt><trkpt lat="41.78495476752432" lon="0.7923261855689414"><ele>266.0</ele><time>2026-03-30T11:47:06Z</time></trkpt><trkpt lat="41.78517137861844" lon="0.7921904157763163"><ele>267.5</ele><time>2026-03-30T11:47:07Z</time></trkpt><trkpt lat="41.785388670605286" lon="0.7920463047570443"><ele>269.0</ele><time>2026-03-30T11:47:08Z</time></trkpt><trkpt lat="41.78559347918306" lon="0.7918884403363018"><ele>267.5</ele><time>2026-03-30T11:47:09Z</time></trkpt><trkpt lat="41.785791467299255" lon="0.7917147744051795"><ele>266.0</ele><time>2026-03-30T11:47:10Z</time></trkpt><trkpt lat="41.786006624446316" lon="0.7915001378686604"><ele>269.0</ele><time>2026-03-30T11:47:11Z</time></trkpt><trkpt lat="41.78620801183107" lon="0.791272048442064"><ele>272.0</ele><time>2026-03-30T11:47:12Z</time></trkpt><trkpt lat="41.78639575499866" lon="0.7910237743282793"><ele>270.5</ele><time>2026-03-30T11:47:13Z</time></trkpt><trkpt lat="41.786578136862076" lon="0.7907629077457614"><ele>269.0</ele><time>2026-03-30T11:47:14Z</time></trkpt><trkpt lat="41.78674537600252" lon="0.7904813579978095"><ele>269.0</ele><time>2026-03-30T11:47:15Z</time></trkpt><trkpt lat="41.78690801474579" lon="0.7901860285970536"><ele>269.0</ele><time>2026-03-30T11:47:16Z</time></trkpt><trkpt lat="41.78706815864747" lon="0.78988526542061"><ele>269.0</ele><time>2026-03-30T11:47:17Z</time></trkpt><trkpt lat="41.78722351578928" lon="0.7895768204823689"><ele>269.0</ele><time>2026-03-30T11:47:18Z</time></trkpt><trkpt lat="41.78737233594041" lon="0.7892777893543126"><ele>268.0</ele><time>2026-03-30T11:47:19Z</time></trkpt><trkpt lat="41.787524368766995" lon="0.7889848669864745"><ele>267.0</ele><time>2026-03-30T11:47:20Z</time></trkpt><trkpt lat="41.78768117644179" lon="0.7886859683134888"><ele>268.5</ele><time>2026-03-30T11:47:21Z</time></trkpt><trkpt lat="41.78784297390341" lon="0.7883944958037533"><ele>270.0</ele><time>2026-03-30T11:47:22Z</time></trkpt><trkpt lat="41.78799617435726" lon="0.7880972911915931"><ele>270.0</ele><time>2026-03-30T11:47:23Z</time></trkpt><trkpt lat="41.78813741305127" lon="0.7878129668166215"><ele>270.0</ele><time>2026-03-30T11:47:24Z</time></trkpt><trkpt lat="41.78828287095519" lon="0.7875369552389513"><ele>270.5</ele><time>2026-03-30T11:47:25Z</time></trkpt><trkpt lat="41.788427442902815" lon="0.7872656995238132"><ele>271.0</ele><time>2026-03-30T11:47:26Z</time></trkpt><trkpt lat="41.78857746834461" lon="0.7869795108399852"><ele>268.0</ele><time>2026-03-30T11:47:27Z</time></trkpt><trkpt lat="41.78873687619329" lon="0.7866823771631013"><ele>265.0</ele><time>2026-03-30T11:47:28Z</time></trkpt><trkpt lat="41.78889147518428" lon="0.7863997972328227"><ele>265.0</ele><time>2026-03-30T11:47:29Z</time></trkpt><trkpt lat="41.78904071518815" lon="0.786114538020477"><ele>265.0</ele><time>2026-03-30T11:47:30Z</time></trkpt><trkpt lat="41.78918723914417" lon="0.7858303236172971"><ele>264.0</ele><time>2026-03-30T11:47:31Z</time></trkpt><trkpt lat="41.78933894503184" lon="0.7855486055376337"><ele>263.0</ele><time>2026-03-30T11:47:32Z</time></trkpt><trkpt lat="41.78949291841757" lon="0.7852602274587763"><ele>261.5</ele><time>2026-03-30T11:47:33Z</time></trkpt><trkpt lat="41.789645150583716" lon="0.7849635300937682"><ele>260.0</ele><time>2026-03-30T11:47:34Z</time></trkpt><trkpt lat="41.78979809015388" lon="0.7846704401491402"><ele>260.0</ele><time>2026-03-30T11:47:35Z</time></trkpt><trkpt lat="41.78995345111832" lon="0.7843901183362952"><ele>260.0</ele><time>2026-03-30T11:47:36Z</time></trkpt><trkpt lat="41.79010858458252" lon="0.7840996366386681"><ele>260.0</ele><time>2026-03-30T11:47:37Z</time></trkpt><trkpt lat="41.79026360124428" lon="0.7838019057952148"><ele>260.0</ele><time>2026-03-30T11:47:38Z</time></trkpt><trkpt lat="41.790411560227895" lon="0.7835097493545456"><ele>259.0</ele><time>2026-03-30T11:47:39Z</time></trkpt><trkpt lat="41.79056914088769" lon="0.7832334894634156"><ele>258.0</ele><time>2026-03-30T11:47:40Z</time></trkpt><trkpt lat="41.79071871270829" lon="0.7829488628300906"><ele>257.5</ele><time>2026-03-30T11:47:41Z</time></trkpt><trkpt lat="41.79088200103369" lon="0.7826352678949686"><ele>257.0</ele><time>2026-03-30T11:47:42Z</time></trkpt><trkpt lat="41.79103729625993" lon="0.78233831200905"><ele>256.5</ele><time>2026-03-30T11:47:43Z</time></trkpt><trkpt lat="41.791196866448566" lon="0.7820422342226058"><ele>256.0</ele><time>2026-03-30T11:47:44Z</time></trkpt><trkpt lat="41.79135908503365" lon="0.7817412085912792"><ele>253.5</ele><time>2026-03-30T11:47:45Z</time></trkpt><trkpt lat="41.791520470313294" lon="0.7814348222327822"><ele>251.0</ele><time>2026-03-30T11:47:46Z</time></trkpt><trkpt lat="41.79167853486247" lon="0.7811301566590095"><ele>251.0</ele><time>2026-03-30T11:47:47Z</time></trkpt><trkpt lat="41.79183410838434" lon="0.7808321313020204"><ele>251.0</ele><time>2026-03-30T11:47:48Z</time></trkpt><trkpt lat="41.791989721208466" lon="0.7805426227929884"><ele>250.5</ele><time>2026-03-30T11:47:49Z</time></trkpt><trkpt lat="41.79214736052334" lon="0.7802488396898017"><ele>250.0</ele><time>2026-03-30T11:47:50Z</time></trkpt><trkpt lat="41.792308668922686" lon="0.7799416917045012"><ele>249.5</ele><time>2026-03-30T11:47:51Z</time></trkpt><trkpt lat="41.792474209343716" lon="0.7796220134544809"><ele>249.0</ele><time>2026-03-30T11:47:52Z</time></trkpt><trkpt lat="41.79264563819503" lon="0.7792928879886002"><ele>252.0</ele><time>2026-03-30T11:47:53Z</time></trkpt><trkpt lat="41.79281770545137" lon="0.7789618353840442"><ele>255.0</ele><time>2026-03-30T11:47:54Z</time></trkpt><trkpt lat="41.792980562342336" lon="0.7786629745743072"><ele>256.5</ele><time>2026-03-30T11:47:55Z</time></trkpt><trkpt lat="41.793132986847766" lon="0.7783689961040157"><ele>258.0</ele><time>2026-03-30T11:47:56Z</time></trkpt><trkpt lat="41.79328366257446" lon="0.7780837822778849"><ele>258.0</ele><time>2026-03-30T11:47:57Z</time></trkpt><trkpt lat="41.79343209071004" lon="0.7778024502968787"><ele>258.0</ele><time>2026-03-30T11:47:58Z</time></trkpt><trkpt lat="41.793580645491815" lon="0.7775261601998251"><ele>258.5</ele><time>2026-03-30T11:47:59Z</time></trkpt><trkpt lat="41.79372797205481" lon="0.777254496862997"><ele>259.0</ele><time>2026-03-30T11:48:00Z</time></trkpt><trkpt lat="41.79387156878147" lon="0.7769808056034689"><ele>258.0</ele><time>2026-03-30T11:48:01Z</time></trkpt><trkpt lat="41.794019072559855" lon="0.7766934026765546"><ele>257.0</ele><time>2026-03-30T11:48:02Z</time></trkpt><trkpt lat="41.794176153582164" lon="0.7763964197544556"><ele>257.0</ele><time>2026-03-30T11:48:03Z</time></trkpt><trkpt lat="41.794339267615385" lon="0.7760986367099362"><ele>257.0</ele><time>2026-03-30T11:48:04Z</time></trkpt><trkpt lat="41.79450146743592" lon="0.7757937302446313"><ele>257.5</ele><time>2026-03-30T11:48:05Z</time></trkpt><trkpt lat="41.79466018327173" lon="0.7754890889744135"><ele>258.0</ele><time>2026-03-30T11:48:06Z</time></trkpt><trkpt lat="41.79481749189582" lon="0.7751913944772121"><ele>260.5</ele><time>2026-03-30T11:48:07Z</time></trkpt><trkpt lat="41.794975426857626" lon="0.7748966261395341"><ele>263.0</ele><time>2026-03-30T11:48:08Z</time></trkpt><trkpt lat="41.795135306647346" lon="0.7745935406367628"><ele>265.5</ele><time>2026-03-30T11:48:09Z</time></trkpt><trkpt lat="41.79529496667066" lon="0.774285233401898"><ele>268.0</ele><time>2026-03-30T11:48:10Z</time></trkpt><trkpt lat="41.79545183767339" lon="0.773991137647646"><ele>268.0</ele><time>2026-03-30T11:48:11Z</time></trkpt><trkpt lat="41.79560346800555" lon="0.7737061156791284"><ele>268.0</ele><time>2026-03-30T11:48:12Z</time></trkpt><trkpt lat="41.795754664884676" lon="0.7734204696426584"><ele>267.5</ele><time>2026-03-30T11:48:13Z</time></trkpt><trkpt lat="41.79590803522507" lon="0.7731380262035061"><ele>267.0</ele><time>2026-03-30T11:48:14Z</time></trkpt><trkpt lat="41.79606235005833" lon="0.7728487174586409"><ele>268.0</ele><time>2026-03-30T11:48:15Z</time></trkpt><trkpt lat="41.79621471988573" lon="0.7725576314565767"><ele>269.0</ele><time>2026-03-30T11:48:16Z</time></trkpt><trkpt lat="41.79637189307036" lon="0.7722644326891968"><ele>269.0</ele><time>2026-03-30T11:48:17Z</time></trkpt><trkpt lat="41.796527346251516" lon="0.771965345976709"><ele>269.0</ele><time>2026-03-30T11:48:18Z</time></trkpt><trkpt lat="41.796686738428484" lon="0.7716680490081793"><ele>272.5</ele><time>2026-03-30T11:48:19Z</time></trkpt><trkpt lat="41.79684686609289" lon="0.7713706688242793"><ele>276.0</ele><time>2026-03-30T11:48:20Z</time></trkpt><trkpt lat="41.79700984671286" lon="0.7710600866235704"><ele>275.0</ele><time>2026-03-30T11:48:21Z</time></trkpt><trkpt lat="41.79717628748484" lon="0.7707424524335614"><ele>274.0</ele><time>2026-03-30T11:48:22Z</time></trkpt><trkpt lat="41.797337295129005" lon="0.7704304201668787"><ele>270.5</ele><time>2026-03-30T11:48:23Z</time></trkpt><trkpt lat="41.79749277789374" lon="0.7701266740935423"><ele>267.0</ele><time>2026-03-30T11:48:24Z</time></trkpt><trkpt lat="41.79765978708511" lon="0.7698196844296892"><ele>268.5</ele><time>2026-03-30T11:48:25Z</time></trkpt><trkpt lat="41.79782368909119" lon="0.7695181432702446"><ele>270.0</ele><time>2026-03-30T11:48:26Z</time></trkpt><trkpt lat="41.79798222246529" lon="0.7692146121010018"><ele>266.0</ele><time>2026-03-30T11:48:27Z</time></trkpt><trkpt lat="41.79814074189897" lon="0.7689121783187539"><ele>262.0</ele><time>2026-03-30T11:48:28Z</time></trkpt><trkpt lat="41.79830324413389" lon="0.7686002829195571"><ele>262.0</ele><time>2026-03-30T11:48:29Z</time></trkpt><trkpt lat="41.79846643441678" lon="0.7682880282523448"><ele>262.0</ele><time>2026-03-30T11:48:30Z</time></trkpt><trkpt lat="41.79863073626567" lon="0.7679762766876803"><ele>264.0</ele><time>2026-03-30T11:48:31Z</time></trkpt><trkpt lat="41.798797910433905" lon="0.7676634068491387"><ele>266.0</ele><time>2026-03-30T11:48:32Z</time></trkpt><trkpt lat="41.79895852055813" lon="0.7673622508651482"><ele>266.0</ele><time>2026-03-30T11:48:33Z</time></trkpt><trkpt lat="41.79911843080856" lon="0.7670565415531077"><ele>266.0</ele><time>2026-03-30T11:48:34Z</time></trkpt><trkpt lat="41.7992796333473" lon="0.7667495926396761"><ele>267.5</ele><time>2026-03-30T11:48:35Z</time></trkpt><trkpt lat="41.799444242027896" lon="0.7664379181593439"><ele>269.0</ele><time>2026-03-30T11:48:36Z</time></trkpt><trkpt lat="41.79960903730769" lon="0.7661288896760183"><ele>268.0</ele><time>2026-03-30T11:48:37Z</time></trkpt><trkpt lat="41.79977098246685" lon="0.7658204127075477"><ele>267.0</ele><time>2026-03-30T11:48:38Z</time></trkpt><trkpt lat="41.79993409291915" lon="0.7655089776323717"><ele>267.0</ele><time>2026-03-30T11:48:39Z</time></trkpt><trkpt lat="41.80009376897971" lon="0.7652014896802765"><ele>267.0</ele><time>2026-03-30T11:48:40Z</time></trkpt><trkpt lat="41.80025445276301" lon="0.7648914428614741"><ele>266.0</ele><time>2026-03-30T11:48:41Z</time></trkpt><trkpt lat="41.800421375628765" lon="0.7645740250523149"><ele>265.0</ele><time>2026-03-30T11:48:42Z</time></trkpt><trkpt lat="41.800595383968954" lon="0.7642517775820504"><ele>264.0</ele><time>2026-03-30T11:48:43Z</time></trkpt><trkpt lat="41.80077119708625" lon="0.7639199664791362"><ele>263.0</ele><time>2026-03-30T11:48:44Z</time></trkpt><trkpt lat="41.80094070803719" lon="0.7635969542211051"><ele>265.0</ele><time>2026-03-30T11:48:45Z</time></trkpt><trkpt lat="41.801101090414576" lon="0.7632887311087865"><ele>267.0</ele><time>2026-03-30T11:48:46Z</time></trkpt><trkpt lat="41.80125779556747" lon="0.7629911711628653"><ele>267.0</ele><time>2026-03-30T11:48:47Z</time></trkpt><trkpt lat="41.80141226584159" lon="0.7626984521775411"><ele>267.0</ele><time>2026-03-30T11:48:48Z</time></trkpt><trkpt lat="41.801562433074665" lon="0.7624108974456822"><ele>268.0</ele><time>2026-03-30T11:48:49Z</time></trkpt><trkpt lat="41.801712222271746" lon="0.7621279900964667"><ele>269.0</ele><time>2026-03-30T11:48:50Z</time></trkpt><trkpt lat="41.801863977370665" lon="0.7618482680416129"><ele>270.5</ele><time>2026-03-30T11:48:51Z</time></trkpt><trkpt lat="41.802012888349275" lon="0.7615699420337221"><ele>272.0</ele><time>2026-03-30T11:48:52Z</time></trkpt><trkpt lat="41.80216747616497" lon="0.761277772030653"><ele>272.5</ele><time>2026-03-30T11:48:53Z</time></trkpt><trkpt lat="41.80232194354522" lon="0.7609819436109397"><ele>273.0</ele><time>2026-03-30T11:48:54Z</time></trkpt><trkpt lat="41.80247033326449" lon="0.7606991037440667"><ele>273.0</ele><time>2026-03-30T11:48:55Z</time></trkpt><trkpt lat="41.802627521613466" lon="0.7604065721320655"><ele>273.0</ele><time>2026-03-30T11:48:56Z</time></trkpt><trkpt lat="41.802790333455455" lon="0.760107017320729"><ele>273.0</ele><time>2026-03-30T11:48:57Z</time></trkpt><trkpt lat="41.80295656296834" lon="0.7598041965410621"><ele>273.0</ele><time>2026-03-30T11:48:58Z</time></trkpt><trkpt lat="41.80311644623939" lon="0.7594913326286901"><ele>272.5</ele><time>2026-03-30T11:48:59Z</time></trkpt><trkpt lat="41.80327814264425" lon="0.7591793745988562"><ele>272.0</ele><time>2026-03-30T11:49:00Z</time></trkpt><trkpt lat="41.803438660168766" lon="0.7588682504330485"><ele>273.5</ele><time>2026-03-30T11:49:01Z</time></trkpt><trkpt lat="41.803602950724276" lon="0.758565406576866"><ele>275.0</ele><time>2026-03-30T11:49:02Z</time></trkpt><trkpt lat="41.80377193112533" lon="0.7582602132405704"><ele>275.0</ele><time>2026-03-30T11:49:03Z</time></trkpt><trkpt lat="41.80393481648544" lon="0.7579501112599534"><ele>275.0</ele><time>2026-03-30T11:49:04Z</time></trkpt><trkpt lat="41.80409102585481" lon="0.7576408250870185"><ele>274.5</ele><time>2026-03-30T11:49:05Z</time></trkpt><trkpt lat="41.8042510773239" lon="0.7573350682897407"><ele>274.0</ele><time>2026-03-30T11:49:06Z</time></trkpt><trkpt lat="41.80441552918994" lon="0.7570328096834057"><ele>274.0</ele><time>2026-03-30T11:49:07Z</time></trkpt><trkpt lat="41.80457353011891" lon="0.7567287060707983"><ele>274.0</ele><time>2026-03-30T11:49:08Z</time></trkpt><trkpt lat="41.80473170342134" lon="0.7564204311727071"><ele>274.0</ele><time>2026-03-30T11:49:09Z</time></trkpt><trkpt lat="41.80489354127923" lon="0.7561176272343335"><ele>274.0</ele><time>2026-03-30T11:49:10Z</time></trkpt><trkpt lat="41.805053449955004" lon="0.7558117391844464"><ele>275.5</ele><time>2026-03-30T11:49:11Z</time></trkpt><trkpt lat="41.805212438956964" lon="0.7555083145552819"><ele>277.0</ele><time>2026-03-30T11:49:12Z</time></trkpt><trkpt lat="41.805374678918305" lon="0.7552121391637405"><ele>276.5</ele><time>2026-03-30T11:49:13Z</time></trkpt><trkpt lat="41.80553579453452" lon="0.7549088636010811"><ele>276.0</ele><time>2026-03-30T11:49:14Z</time></trkpt><trkpt lat="41.80569207628566" lon="0.7546060471020816"><ele>276.5</ele><time>2026-03-30T11:49:15Z</time></trkpt><trkpt lat="41.805848731165334" lon="0.7543090817516362"><ele>277.0</ele><time>2026-03-30T11:49:16Z</time></trkpt><trkpt lat="41.80600496509331" lon="0.7540112160868044"><ele>278.0</ele><time>2026-03-30T11:49:17Z</time></trkpt><trkpt lat="41.806165456868385" lon="0.7537130633452113"><ele>279.0</ele><time>2026-03-30T11:49:18Z</time></trkpt><trkpt lat="41.806322493626936" lon="0.7534146815502476"><ele>279.5</ele><time>2026-03-30T11:49:19Z</time></trkpt><trkpt lat="41.806478447874035" lon="0.7531053198655303"><ele>280.0</ele><time>2026-03-30T11:49:20Z</time></trkpt><trkpt lat="41.80664221052433" lon="0.7527973207565886"><ele>280.0</ele><time>2026-03-30T11:49:21Z</time></trkpt><trkpt lat="41.806806230619436" lon="0.7524844946565717"><ele>280.0</ele><time>2026-03-30T11:49:22Z</time></trkpt><trkpt lat="41.806969959697845" lon="0.7521715339974908"><ele>282.0</ele><time>2026-03-30T11:49:23Z</time></trkpt><trkpt lat="41.80713613230256" lon="0.7518576769369568"><ele>284.0</ele><time>2026-03-30T11:49:24Z</time></trkpt><trkpt lat="41.80730211204899" lon="0.7515469218711269"><ele>284.0</ele><time>2026-03-30T11:49:25Z</time></trkpt><trkpt lat="41.80744498178027" lon="0.7512480518547096"><ele>284.0</ele><time>2026-03-30T11:49:26Z</time></trkpt><trkpt lat="41.80759300042569" lon="0.7509229995000856"><ele>285.0</ele><time>2026-03-30T11:49:27Z</time></trkpt><trkpt lat="41.8077856688492" lon="0.7506210051916619"><ele>286.0</ele><time>2026-03-30T11:49:28Z</time></trkpt><trkpt lat="41.807949422515776" lon="0.7503093223528928"><ele>285.5</ele><time>2026-03-30T11:49:29Z</time></trkpt><trkpt lat="41.80811821272662" lon="0.7499808589376343"><ele>285.0</ele><time>2026-03-30T11:49:30Z</time></trkpt><trkpt lat="41.80829363658396" lon="0.7496481051008888"><ele>285.5</ele><time>2026-03-30T11:49:31Z</time></trkpt><trkpt lat="41.80846811459595" lon="0.7493260290046106"><ele>286.0</ele><time>2026-03-30T11:49:32Z</time></trkpt><trkpt lat="41.80863688726428" lon="0.7490089903219749"><ele>288.5</ele><time>2026-03-30T11:49:33Z</time></trkpt><trkpt lat="41.80880242758359" lon="0.748692601947067"><ele>291.0</ele><time>2026-03-30T11:49:34Z</time></trkpt><trkpt lat="41.80896792594211" lon="0.7483736357992093"><ele>291.5</ele><time>2026-03-30T11:49:35Z</time></trkpt><trkpt lat="41.809131899750774" lon="0.7480620565560814"><ele>292.0</ele><time>2026-03-30T11:49:36Z</time></trkpt><trkpt lat="41.80929476282637" lon="0.7477564035504302"><ele>295.0</ele><time>2026-03-30T11:49:37Z</time></trkpt><trkpt lat="41.809454470518766" lon="0.7474563758734835"><ele>298.0</ele><time>2026-03-30T11:49:38Z</time></trkpt><trkpt lat="41.809611200249655" lon="0.7471624605502177"><ele>297.5</ele><time>2026-03-30T11:49:39Z</time></trkpt><trkpt lat="41.8097672930631" lon="0.746866097606742"><ele>297.0</ele><time>2026-03-30T11:49:40Z</time></trkpt><trkpt lat="41.80992288754225" lon="0.7465705127166502"><ele>297.0</ele><time>2026-03-30T11:49:41Z</time></trkpt><trkpt lat="41.81008037891584" lon="0.7462732638186983"><ele>297.0</ele><time>2026-03-30T11:49:42Z</time></trkpt><trkpt lat="41.81024132161768" lon="0.7459749322227961"><ele>297.5</ele><time>2026-03-30T11:49:43Z</time></trkpt><trkpt lat="41.81039845528425" lon="0.7456768741231419"><ele>298.0</ele><time>2026-03-30T11:49:44Z</time></trkpt><trkpt lat="41.810562358898345" lon="0.7453658237315198"><ele>297.5</ele><time>2026-03-30T11:49:45Z</time></trkpt><trkpt lat="41.81072910464868" lon="0.7450523321272272"><ele>297.0</ele><time>2026-03-30T11:49:46Z</time></trkpt><trkpt lat="41.810895938885054" lon="0.744742818390757"><ele>301.0</ele><time>2026-03-30T11:49:47Z</time></trkpt><trkpt lat="41.81105872213256" lon="0.7444349277590642"><ele>305.0</ele><time>2026-03-30T11:49:48Z</time></trkpt><trkpt lat="41.81121602815941" lon="0.7441301611359928"><ele>305.5</ele><time>2026-03-30T11:49:49Z</time></trkpt><trkpt lat="41.811371461053774" lon="0.7438307716404027"><ele>306.0</ele><time>2026-03-30T11:49:50Z</time></trkpt><trkpt lat="41.81152677925456" lon="0.7435349190311126"><ele>305.0</ele><time>2026-03-30T11:49:51Z</time></trkpt><trkpt lat="41.811684335404024" lon="0.7432345148768225"><ele>304.0</ele><time>2026-03-30T11:49:52Z</time></trkpt><trkpt lat="41.81184718864972" lon="0.7429308633282995"><ele>307.0</ele><time>2026-03-30T11:49:53Z</time></trkpt><trkpt lat="41.81200994702042" lon="0.7426268010417472"><ele>310.0</ele><time>2026-03-30T11:49:54Z</time></trkpt><trkpt lat="41.812165719477946" lon="0.7423274474696892"><ele>310.0</ele><time>2026-03-30T11:49:55Z</time></trkpt><trkpt lat="41.81231906500969" lon="0.7420310789718925"><ele>310.0</ele><time>2026-03-30T11:49:56Z</time></trkpt><trkpt lat="41.81247134439899" lon="0.7417380132913003"><ele>309.0</ele><time>2026-03-30T11:49:57Z</time></trkpt><trkpt lat="41.812631814788226" lon="0.7414424416177839"><ele>308.0</ele><time>2026-03-30T11:49:58Z</time></trkpt><trkpt lat="41.81279190199209" lon="0.7411458987823144"><ele>310.5</ele><time>2026-03-30T11:49:59Z</time></trkpt><trkpt lat="41.81294673123194" lon="0.7408555965720596"><ele>313.0</ele><time>2026-03-30T11:50:00Z</time></trkpt><trkpt lat="41.8131023417018" lon="0.7405614785370502"><ele>313.0</ele><time>2026-03-30T11:50:01Z</time></trkpt><trkpt lat="41.813260155535424" lon="0.7402623796354764"><ele>313.0</ele><time>2026-03-30T11:50:02Z</time></trkpt><trkpt lat="41.81341592103218" lon="0.7399601862404044"><ele>315.0</ele><time>2026-03-30T11:50:03Z</time></trkpt><trkpt lat="41.81357522365414" lon="0.7396609737142245"><ele>317.0</ele><time>2026-03-30T11:50:04Z</time></trkpt><trkpt lat="41.81373472980943" lon="0.739363642870411"><ele>317.0</ele><time>2026-03-30T11:50:05Z</time></trkpt><trkpt lat="41.81388937261554" lon="0.7390689882110444"><ele>317.0</ele><time>2026-03-30T11:50:06Z</time></trkpt><trkpt lat="41.814042422120636" lon="0.7387785531284939"><ele>317.5</ele><time>2026-03-30T11:50:07Z</time></trkpt><trkpt lat="41.81419703716111" lon="0.7384864221066814"><ele>318.0</ele><time>2026-03-30T11:50:08Z</time></trkpt><trkpt lat="41.81434571096882" lon="0.7382087522410358"><ele>322.0</ele><time>2026-03-30T11:50:09Z</time></trkpt><trkpt lat="41.8144960745165" lon="0.7379257379189338"><ele>326.0</ele><time>2026-03-30T11:50:10Z</time></trkpt><trkpt lat="41.814650250734246" lon="0.7376307953330561"><ele>326.5</ele><time>2026-03-30T11:50:11Z</time></trkpt><trkpt lat="41.81480289022783" lon="0.7373434141694393"><ele>327.0</ele><time>2026-03-30T11:50:12Z</time></trkpt><trkpt lat="41.814948873443676" lon="0.7370678125994613"><ele>327.5</ele><time>2026-03-30T11:50:13Z</time></trkpt><trkpt lat="41.8150988264612" lon="0.736786601634762"><ele>328.0</ele><time>2026-03-30T11:50:14Z</time></trkpt><trkpt lat="41.815252374723094" lon="0.7365079562513434"><ele>330.0</ele><time>2026-03-30T11:50:15Z</time></trkpt><trkpt lat="41.81540303195586" lon="0.7362397999059604"><ele>332.0</ele><time>2026-03-30T11:50:16Z</time></trkpt><trkpt lat="41.815545095329085" lon="0.7359807215808322"><ele>333.0</ele><time>2026-03-30T11:50:17Z</time></trkpt><trkpt lat="41.815675574677414" lon="0.7357415870291277"><ele>334.0</ele><time>2026-03-30T11:50:18Z</time></trkpt><trkpt lat="41.815798708356354" lon="0.7355191808726218"><ele>335.0</ele><time>2026-03-30T11:50:19Z</time></trkpt><trkpt lat="41.8159049033032" lon="0.7352877006679771"><ele>338.6666666666667</ele><time>2026-03-30T11:50:20Z</time></trkpt><trkpt lat="41.815989666749715" lon="0.7350473427368698"><ele>342.3333333333333</ele><time>2026-03-30T11:50:21Z</time></trkpt><trkpt lat="41.816058297969164" lon="0.7347905621361982"><ele>346.0</ele><time>2026-03-30T11:50:22Z</time></trkpt><trkpt lat="41.81608874252267" lon="0.7345424828517017"><ele>346.0</ele><time>2026-03-30T11:50:23Z</time></trkpt><trkpt lat="41.81610706755779" lon="0.7343189647164243"><ele>346.0</ele><time>2026-03-30T11:50:24Z</time></trkpt><trkpt lat="41.816125344158586" lon="0.7341083065895992"><ele>346.0</ele><time>2026-03-30T11:50:25Z</time></trkpt><trkpt lat="41.81614615392592" lon="0.7338947767902468"><ele>346.0</ele><time>2026-03-30T11:50:26Z</time></trkpt><trkpt lat="41.81617253753114" lon="0.7336619235785896"><ele>346.0</ele><time>2026-03-30T11:50:27Z</time></trkpt><trkpt lat="41.816201805971716" lon="0.7334268550169427"><ele>346.0</ele><time>2026-03-30T11:50:28Z</time></trkpt><trkpt lat="41.81622479602474" lon="0.7332259520867904"><ele>344.20000000000005</ele><time>2026-03-30T11:50:29Z</time></trkpt><trkpt lat="41.816245235204526" lon="0.7330543044823682"><ele>342.40000000000003</ele><time>2026-03-30T11:50:30Z</time></trkpt><trkpt lat="41.81626287074196" lon="0.7328998690458952"><ele>340.6</ele><time>2026-03-30T11:50:31Z</time></trkpt><trkpt lat="41.816278793382736" lon="0.7327730842219383"><ele>338.8</ele><time>2026-03-30T11:50:32Z</time></trkpt><trkpt lat="41.816290270309295" lon="0.7326887180112946"><ele>337.0</ele><time>2026-03-30T11:50:33Z</time></trkpt><trkpt lat="41.81630841401738" lon="0.7326031729659377"><ele>335.5</ele><time>2026-03-30T11:50:42Z</time></trkpt><trkpt lat="41.81632329924612" lon="0.7324954644300605"><ele>334.0</ele><time>2026-03-30T11:50:43Z</time></trkpt><trkpt lat="41.816351788577045" lon="0.732381086495959"><ele>332.5</ele><time>2026-03-30T11:50:44Z</time></trkpt><trkpt lat="41.816383804158825" lon="0.7322963299135951"><ele>331.0</ele><time>2026-03-30T11:50:45Z</time></trkpt><trkpt lat="41.816428461254546" lon="0.7321851079073917"><ele>329.5</ele><time>2026-03-30T11:50:47Z</time></trkpt><trkpt lat="41.81646435300557" lon="0.7321050116134474"><ele>328.0</ele><time>2026-03-30T11:50:49Z</time></trkpt><trkpt lat="41.8163639885975" lon="0.7321941957814776"><ele>328.0</ele><time>2026-03-30T11:50:54Z</time></trkpt><trkpt lat="41.816323335513516" lon="0.7323508344306382"><ele>328.0</ele><time>2026-03-30T11:50:56Z</time></trkpt><trkpt lat="41.81627338957801" lon="0.732542305347845"><ele>328.0</ele><time>2026-03-30T11:50:57Z</time></trkpt><trkpt lat="41.81623701003833" lon="0.7327782257862065"><ele>332.5</ele><time>2026-03-30T11:50:58Z</time></trkpt><trkpt lat="41.81620253825841" lon="0.7330699670655331"><ele>337.0</ele><time>2026-03-30T11:50:59Z</time></trkpt><trkpt lat="41.81616579305687" lon="0.7333948146526326"><ele>341.5</ele><time>2026-03-30T11:51:00Z</time></trkpt><trkpt lat="41.81613025243403" lon="0.7337137449612547"><ele>346.0</ele><time>2026-03-30T11:51:01Z</time></trkpt><trkpt lat="41.81610820504757" lon="0.7339943220189294"><ele>346.0</ele><time>2026-03-30T11:51:02Z</time></trkpt><trkpt lat="41.816092363280454" lon="0.7342446133987215"><ele>346.0</ele><time>2026-03-30T11:51:03Z</time></trkpt><trkpt lat="41.816054829208134" lon="0.7344740527571348"><ele>346.0</ele><time>2026-03-30T11:51:04Z</time></trkpt><trkpt lat="41.816028909854424" lon="0.734698311980685"><ele>342.66666666666663</ele><time>2026-03-30T11:51:05Z</time></trkpt><trkpt lat="41.815862639440866" lon="0.7348878500367035"><ele>339.3333333333333</ele><time>2026-03-30T11:51:06Z</time></trkpt><trkpt lat="41.815809923492345" lon="0.7350549911404236"><ele>336.0</ele><time>2026-03-30T11:51:07Z</time></trkpt><trkpt lat="41.815720270496186" lon="0.7351647167670047"><ele>335.75</ele><time>2026-03-30T11:51:08Z</time></trkpt><trkpt lat="41.81561143271938" lon="0.7352475325484543"><ele>335.5</ele><time>2026-03-30T11:51:09Z</time></trkpt><trkpt lat="41.81549249718542" lon="0.7353976909162006"><ele>335.25</ele><time>2026-03-30T11:51:10Z</time></trkpt><trkpt lat="41.81541053377006" lon="0.7352211293464533"><ele>335.0</ele><time>2026-03-30T11:51:11Z</time></trkpt><trkpt lat="41.815482483270756" lon="0.7359898884168048"><ele>334.0</ele><time>2026-03-30T11:51:12Z</time></trkpt><trkpt lat="41.81538543468342" lon="0.7361713533158764"><ele>333.0</ele><time>2026-03-30T11:51:13Z</time></trkpt><trkpt lat="41.815276411222186" lon="0.7363664436157724"><ele>332.0</ele><time>2026-03-30T11:51:14Z</time></trkpt><trkpt lat="41.815166387118005" lon="0.7365664079685581"><ele>330.6666666666667</ele><time>2026-03-30T11:51:15Z</time></trkpt><trkpt lat="41.81505449876126" lon="0.7367723979548333"><ele>329.3333333333333</ele><time>2026-03-30T11:51:16Z</time></trkpt><trkpt lat="41.81493890501542" lon="0.7369882168715005"><ele>328.0</ele><time>2026-03-30T11:51:17Z</time></trkpt><trkpt lat="41.81481871106045" lon="0.7372184381946818"><ele>327.66666666666663</ele><time>2026-03-30T11:51:18Z</time></trkpt><trkpt lat="41.81470179464937" lon="0.7374451894691368"><ele>327.3333333333333</ele><time>2026-03-30T11:51:19Z</time></trkpt><trkpt lat="41.814558607763345" lon="0.7377038431747887"><ele>327.0</ele><time>2026-03-30T11:51:20Z</time></trkpt><trkpt lat="41.814426773133476" lon="0.73794945805707"><ele>322.5</ele><time>2026-03-30T11:51:21Z</time></trkpt><trkpt lat="41.8142971806333" lon="0.7381947542365958"><ele>318.0</ele><time>2026-03-30T11:51:22Z</time></trkpt><trkpt lat="41.81416579008994" lon="0.7384510560773079"><ele>317.5</ele><time>2026-03-30T11:51:23Z</time></trkpt><trkpt lat="41.81403445989382" lon="0.7387044042204123"><ele>317.0</ele><time>2026-03-30T11:51:24Z</time></trkpt><trkpt lat="41.81389695606968" lon="0.7389589562930307"><ele>317.0</ele><time>2026-03-30T11:51:25Z</time></trkpt><trkpt lat="41.81376142642914" lon="0.7392101714326603"><ele>317.0</ele><time>2026-03-30T11:51:26Z</time></trkpt><trkpt lat="41.81363385258983" lon="0.7394575662973167"><ele>317.0</ele><time>2026-03-30T11:51:27Z</time></trkpt><trkpt lat="41.813509995361" lon="0.7396961122321303"><ele>317.0</ele><time>2026-03-30T11:51:28Z</time></trkpt><trkpt lat="41.813384027696976" lon="0.7399339596417024"><ele>317.0</ele><time>2026-03-30T11:51:29Z</time></trkpt><trkpt lat="41.81325590945175" lon="0.7401727458558809"><ele>315.6666666666667</ele><time>2026-03-30T11:51:30Z</time></trkpt><trkpt lat="41.81312889821208" lon="0.7404176781432414"><ele>314.3333333333333</ele><time>2026-03-30T11:51:31Z</time></trkpt><trkpt lat="41.81299679589061" lon="0.7406607694099736"><ele>313.0</ele><time>2026-03-30T11:51:32Z</time></trkpt><trkpt lat="41.812867545483506" lon="0.7409052577389063"><ele>314.0</ele><time>2026-03-30T11:51:33Z</time></trkpt><trkpt lat="41.81273865337306" lon="0.7411521069041638"><ele>315.0</ele><time>2026-03-30T11:51:34Z</time></trkpt><trkpt lat="41.81260704895784" lon="0.74139926605658"><ele>312.5</ele><time>2026-03-30T11:51:35Z</time></trkpt><trkpt lat="41.81247378416839" lon="0.7416463652477141"><ele>310.0</ele><time>2026-03-30T11:51:36Z</time></trkpt><trkpt lat="41.81233581328437" lon="0.7419143049910416"><ele>310.0</ele><time>2026-03-30T11:51:37Z</time></trkpt><trkpt lat="41.81219551217406" lon="0.7421767828177471"><ele>310.0</ele><time>2026-03-30T11:51:38Z</time></trkpt><trkpt lat="41.81205629941458" lon="0.7424383935413758"><ele>310.0</ele><time>2026-03-30T11:51:39Z</time></trkpt><trkpt lat="41.81191863179694" lon="0.7427034741004015"><ele>310.0</ele><time>2026-03-30T11:51:40Z</time></trkpt><trkpt lat="41.81178103281866" lon="0.7429676632629291"><ele>307.0</ele><time>2026-03-30T11:51:41Z</time></trkpt><trkpt lat="41.811642048229864" lon="0.7432287917867187"><ele>304.0</ele><time>2026-03-30T11:51:42Z</time></trkpt><trkpt lat="41.81150183658767" lon="0.7434980392589483"><ele>305.0</ele><time>2026-03-30T11:51:43Z</time></trkpt><trkpt lat="41.81136157905531" lon="0.7437701231365306"><ele>306.0</ele><time>2026-03-30T11:51:44Z</time></trkpt><trkpt lat="41.811214093154454" lon="0.7440558583564394"><ele>306.0</ele><time>2026-03-30T11:51:45Z</time></trkpt><trkpt lat="41.81105872598988" lon="0.7443471747240444"><ele>306.0</ele><time>2026-03-30T11:51:46Z</time></trkpt><trkpt lat="41.810898780316876" lon="0.7446508916800583"><ele>302.0</ele><time>2026-03-30T11:51:47Z</time></trkpt><trkpt lat="41.81074030079827" lon="0.7449543339923828"><ele>298.0</ele><time>2026-03-30T11:51:48Z</time></trkpt><trkpt lat="41.81057915554453" lon="0.7452574214269461"><ele>298.0</ele><time>2026-03-30T11:51:49Z</time></trkpt><trkpt lat="41.81041683385134" lon="0.745559553314626"><ele>298.0</ele><time>2026-03-30T11:51:50Z</time></trkpt><trkpt lat="41.81025519009355" lon="0.7458585709083225"><ele>297.5</ele><time>2026-03-30T11:51:51Z</time></trkpt><trkpt lat="41.810092763385704" lon="0.7461665307090377"><ele>297.0</ele><time>2026-03-30T11:51:52Z</time></trkpt><trkpt lat="41.80993680259029" lon="0.7464589273950394"><ele>297.0</ele><time>2026-03-30T11:51:53Z</time></trkpt><trkpt lat="41.80979133923877" lon="0.7467330747449253"><ele>297.0</ele><time>2026-03-30T11:51:54Z</time></trkpt><trkpt lat="41.80964822821347" lon="0.747007309163596"><ele>297.5</ele><time>2026-03-30T11:51:55Z</time></trkpt><trkpt lat="41.809490489527214" lon="0.7473020174072514"><ele>298.0</ele><time>2026-03-30T11:51:56Z</time></trkpt><trkpt lat="41.80932563569617" lon="0.7476061051795092"><ele>295.0</ele><time>2026-03-30T11:51:57Z</time></trkpt><trkpt lat="41.80916437879714" lon="0.7479105106973906"><ele>292.0</ele><time>2026-03-30T11:51:58Z</time></trkpt><trkpt lat="41.809005422149475" lon="0.7482159140398722"><ele>292.0</ele><time>2026-03-30T11:51:59Z</time></trkpt><trkpt lat="41.80888404405586" lon="0.7484732212420928"><ele>292.0</ele><time>2026-03-30T11:52:00Z</time></trkpt><trkpt lat="41.80872732840976" lon="0.7487611606664447"><ele>291.5</ele><time>2026-03-30T11:52:01Z</time></trkpt><trkpt lat="41.808561112402046" lon="0.7490671571471252"><ele>291.0</ele><time>2026-03-30T11:52:02Z</time></trkpt><trkpt lat="41.80839272479994" lon="0.7493909730398224"><ele>288.0</ele><time>2026-03-30T11:52:03Z</time></trkpt><trkpt lat="41.80822282685364" lon="0.7497143502395438"><ele>285.0</ele><time>2026-03-30T11:52:04Z</time></trkpt><trkpt lat="41.80805426316427" lon="0.7500313514265802"><ele>285.5</ele><time>2026-03-30T11:52:05Z</time></trkpt><trkpt lat="41.807879278658184" lon="0.7503686124650925"><ele>286.0</ele><time>2026-03-30T11:52:06Z</time></trkpt><trkpt lat="41.80769453173741" lon="0.7507164929015011"><ele>285.0</ele><time>2026-03-30T11:52:07Z</time></trkpt><trkpt lat="41.80750975088412" lon="0.7510699837799428"><ele>284.0</ele><time>2026-03-30T11:52:08Z</time></trkpt><trkpt lat="41.80733412961542" lon="0.7513962051405253"><ele>284.0</ele><time>2026-03-30T11:52:09Z</time></trkpt><trkpt lat="41.80716985496817" lon="0.7517114633857733"><ele>284.0</ele><time>2026-03-30T11:52:10Z</time></trkpt><trkpt lat="41.80701355079775" lon="0.7520077864418709"><ele>284.0</ele><time>2026-03-30T11:52:11Z</time></trkpt><trkpt lat="41.80686712208581" lon="0.7522868500428546"><ele>284.0</ele><time>2026-03-30T11:52:12Z</time></trkpt><trkpt lat="41.80672849372921" lon="0.7525490874563715"><ele>282.0</ele><time>2026-03-30T11:52:13Z</time></trkpt><trkpt lat="41.806593042136306" lon="0.7528055411196561"><ele>280.0</ele><time>2026-03-30T11:52:14Z</time></trkpt><trkpt lat="41.80646437389589" lon="0.7530646014431903"><ele>280.0</ele><time>2026-03-30T11:52:15Z</time></trkpt><trkpt lat="41.806344217184375" lon="0.7532965055706856"><ele>280.0</ele><time>2026-03-30T11:52:16Z</time></trkpt><trkpt lat="41.806222010103085" lon="0.7535039192136529"><ele>280.0</ele><time>2026-03-30T11:52:17Z</time></trkpt><trkpt lat="41.806111213981744" lon="0.7537048393952681"><ele>279.66666666666663</ele><time>2026-03-30T11:52:18Z</time></trkpt><trkpt lat="41.806015679105506" lon="0.753906519075259"><ele>279.3333333333333</ele><time>2026-03-30T11:52:19Z</time></trkpt><trkpt lat="41.80592311701418" lon="0.7540790202740416"><ele>279.0</ele><time>2026-03-30T11:52:20Z</time></trkpt><trkpt lat="41.80583878531617" lon="0.7542112167631954"><ele>278.59999999999997</ele><time>2026-03-30T11:52:21Z</time></trkpt><trkpt lat="41.8057709565371" lon="0.7543338303167277"><ele>278.2</ele><time>2026-03-30T11:52:22Z</time></trkpt><trkpt lat="41.805720685792124" lon="0.7544433814666259"><ele>277.79999999999995</ele><time>2026-03-30T11:52:23Z</time></trkpt><trkpt lat="41.805679396049676" lon="0.7545237457994112"><ele>277.4</ele><time>2026-03-30T11:52:24Z</time></trkpt><trkpt lat="41.805632455120055" lon="0.7546206566002654"><ele>277.0</ele><time>2026-03-30T11:52:26Z</time></trkpt><trkpt lat="41.80572826886374" lon="0.7545563577648837"><ele>277.0</ele><time>2026-03-30T11:52:31Z</time></trkpt><trkpt lat="41.805772574005445" lon="0.7544452926543515"><ele>277.0</ele><time>2026-03-30T11:52:32Z</time></trkpt><trkpt lat="41.80582148764257" lon="0.7543419288272549"><ele>277.0</ele><time>2026-03-30T11:52:33Z</time></trkpt><trkpt lat="41.80586328749269" lon="0.7542630403464272"><ele>277.0</ele><time>2026-03-30T11:52:34Z</time></trkpt><trkpt lat="41.80591972676633" lon="0.7541525245455142"><ele>277.0</ele><time>2026-03-30T11:52:36Z</time></trkpt><trkpt lat="41.80597584283758" lon="0.7540296740899196"><ele>277.5</ele><time>2026-03-30T11:52:38Z</time></trkpt><trkpt lat="41.80605222569946" lon="0.7538829930729203"><ele>278.0</ele><time>2026-03-30T11:52:40Z</time></trkpt><trkpt lat="41.806124418032155" lon="0.7537593926125481"><ele>278.5</ele><time>2026-03-30T11:52:41Z</time></trkpt><trkpt lat="41.806210498056615" lon="0.7536007154533827"><ele>279.0</ele><time>2026-03-30T11:52:42Z</time></trkpt><trkpt lat="41.80632559888447" lon="0.7533754220683059"><ele>279.5</ele><time>2026-03-30T11:52:43Z</time></trkpt><trkpt lat="41.80647182256891" lon="0.7531266117408316"><ele>280.0</ele><time>2026-03-30T11:52:44Z</time></trkpt><trkpt lat="41.806614164277235" lon="0.752856948679898"><ele>280.0</ele><time>2026-03-30T11:52:45Z</time></trkpt><trkpt lat="41.80676024067778" lon="0.7525491589728309"><ele>280.0</ele><time>2026-03-30T11:52:46Z</time></trkpt><trkpt lat="41.80692761273594" lon="0.7522667614314137"><ele>282.0</ele><time>2026-03-30T11:52:47Z</time></trkpt><trkpt lat="41.807081801504" lon="0.7519626868997276"><ele>284.0</ele><time>2026-03-30T11:52:48Z</time></trkpt><trkpt lat="41.807239799412365" lon="0.7516638698136269"><ele>284.0</ele><time>2026-03-30T11:52:49Z</time></trkpt><trkpt lat="41.80740251164575" lon="0.7513636252091701"><ele>284.0</ele><time>2026-03-30T11:52:50Z</time></trkpt><trkpt lat="41.807564537079024" lon="0.7510599436046441"><ele>285.0</ele><time>2026-03-30T11:52:51Z</time></trkpt><trkpt lat="41.80772251615987" lon="0.7507624843109645"><ele>286.0</ele><time>2026-03-30T11:52:52Z</time></trkpt><trkpt lat="41.807882732084735" lon="0.7504593174152037"><ele>285.5</ele><time>2026-03-30T11:52:53Z</time></trkpt><trkpt lat="41.80803846272777" lon="0.7501587821967569"><ele>285.0</ele><time>2026-03-30T11:52:54Z</time></trkpt><trkpt lat="41.80819382037983" lon="0.7498601587906453"><ele>285.0</ele><time>2026-03-30T11:52:55Z</time></trkpt><trkpt lat="41.80834632111017" lon="0.7495693986680892"><ele>285.0</ele><time>2026-03-30T11:52:56Z</time></trkpt><trkpt lat="41.80850230341601" lon="0.749278177962217"><ele>288.0</ele><time>2026-03-30T11:52:57Z</time></trkpt><trkpt lat="41.8086615612754" lon="0.748986723916126"><ele>291.0</ele><time>2026-03-30T11:52:58Z</time></trkpt><trkpt lat="41.80881954103134" lon="0.7486867257678498"><ele>291.5</ele><time>2026-03-30T11:52:59Z</time></trkpt><trkpt lat="41.80897871590023" lon="0.748376155088018"><ele>292.0</ele><time>2026-03-30T11:53:00Z</time></trkpt><trkpt lat="41.80914723787426" lon="0.7480538530750774"><ele>292.0</ele><time>2026-03-30T11:53:01Z</time></trkpt><trkpt lat="41.809323262357445" lon="0.7477207645504981"><ele>292.0</ele><time>2026-03-30T11:53:02Z</time></trkpt><trkpt lat="41.8095121839933" lon="0.7473725854043984"><ele>294.5</ele><time>2026-03-30T11:53:03Z</time></trkpt><trkpt lat="41.80970085735139" lon="0.7470133047816585"><ele>297.0</ele><time>2026-03-30T11:53:04Z</time></trkpt><trkpt lat="41.80988510107285" lon="0.7466555354705161"><ele>297.0</ele><time>2026-03-30T11:53:05Z</time></trkpt><trkpt lat="41.810057724820545" lon="0.7463266427390024"><ele>297.0</ele><time>2026-03-30T11:53:06Z</time></trkpt><trkpt lat="41.810230976173656" lon="0.7460072610697547"><ele>297.5</ele><time>2026-03-30T11:53:07Z</time></trkpt><trkpt lat="41.81040127710486" lon="0.745678026007708"><ele>298.0</ele><time>2026-03-30T11:53:08Z</time></trkpt><trkpt lat="41.810576196952574" lon="0.7453419982895891"><ele>297.5</ele><time>2026-03-30T11:53:09Z</time></trkpt><trkpt lat="41.810756620049204" lon="0.7450081399753674"><ele>297.0</ele><time>2026-03-30T11:53:10Z</time></trkpt><trkpt lat="41.81092865954788" lon="0.7446822473687779"><ele>301.5</ele><time>2026-03-30T11:53:11Z</time></trkpt><trkpt lat="41.81110117296198" lon="0.744354247856447"><ele>306.0</ele><time>2026-03-30T11:53:12Z</time></trkpt><trkpt lat="41.811275947751945" lon="0.7440293476937917"><ele>306.0</ele><time>2026-03-30T11:53:13Z</time></trkpt><trkpt lat="41.811448942241164" lon="0.7437074633389739"><ele>306.0</ele><time>2026-03-30T11:53:14Z</time></trkpt><trkpt lat="41.81161864660578" lon="0.7433846870064577"><ele>305.0</ele><time>2026-03-30T11:53:15Z</time></trkpt><trkpt lat="41.81178931420837" lon="0.7430559104526119"><ele>304.0</ele><time>2026-03-30T11:53:16Z</time></trkpt><trkpt lat="41.81196209803207" lon="0.7427274891695133"><ele>307.0</ele><time>2026-03-30T11:53:17Z</time></trkpt><trkpt lat="41.812135823683946" lon="0.742396644986619"><ele>310.0</ele><time>2026-03-30T11:53:18Z</time></trkpt><trkpt lat="41.812312819600834" lon="0.7420581810758562"><ele>309.0</ele><time>2026-03-30T11:53:19Z</time></trkpt><trkpt lat="41.81249079501846" lon="0.7417107536667769"><ele>308.0</ele><time>2026-03-30T11:53:20Z</time></trkpt><trkpt lat="41.81267619883493" lon="0.7413578942231984"><ele>310.5</ele><time>2026-03-30T11:53:21Z</time></trkpt><trkpt lat="41.812864088564766" lon="0.7410064026169714"><ele>313.0</ele><time>2026-03-30T11:53:22Z</time></trkpt><trkpt lat="41.81305548340915" lon="0.7406535307295299"><ele>313.0</ele><time>2026-03-30T11:53:23Z</time></trkpt><trkpt lat="41.813240126958306" lon="0.7403043561355188"><ele>313.0</ele><time>2026-03-30T11:53:24Z</time></trkpt><trkpt lat="41.81342240667336" lon="0.7399640178647884"><ele>315.0</ele><time>2026-03-30T11:53:25Z</time></trkpt><trkpt lat="41.81359921582383" lon="0.7396244978828842"><ele>317.0</ele><time>2026-03-30T11:53:26Z</time></trkpt><trkpt lat="41.81377759872507" lon="0.7392839794692698"><ele>317.0</ele><time>2026-03-30T11:53:27Z</time></trkpt><trkpt lat="41.81395370369664" lon="0.7389424236589226"><ele>317.0</ele><time>2026-03-30T11:53:28Z</time></trkpt><trkpt lat="41.81413922697707" lon="0.738596661694332"><ele>317.5</ele><time>2026-03-30T11:53:29Z</time></trkpt><trkpt lat="41.81431888672196" lon="0.7382579581085285"><ele>318.0</ele><time>2026-03-30T11:53:30Z</time></trkpt><trkpt lat="41.81449290909861" lon="0.7379309347213339"><ele>322.5</ele><time>2026-03-30T11:53:31Z</time></trkpt><trkpt lat="41.814654024942584" lon="0.737624658152753"><ele>327.0</ele><time>2026-03-30T11:53:32Z</time></trkpt><trkpt lat="41.81481154323529" lon="0.7373333361876572"><ele>327.0</ele><time>2026-03-30T11:53:33Z</time></trkpt><trkpt lat="41.81494828259901" lon="0.737070456293514"><ele>327.0</ele><time>2026-03-30T11:53:34Z</time></trkpt><trkpt lat="41.81508201504641" lon="0.7368175818399336"><ele>328.6666666666667</ele><time>2026-03-30T11:53:35Z</time></trkpt><trkpt lat="41.81520098163071" lon="0.7365997947276923"><ele>330.33333333333337</ele><time>2026-03-30T11:53:36Z</time></trkpt><trkpt lat="41.81532064807177" lon="0.736383370605764"><ele>332.0</ele><time>2026-03-30T11:53:37Z</time></trkpt><trkpt lat="41.81542111341244" lon="0.7361967095593953"><ele>332.75</ele><time>2026-03-30T11:53:38Z</time></trkpt><trkpt lat="41.81551675317696" lon="0.7360299715754445"><ele>333.5</ele><time>2026-03-30T11:53:39Z</time></trkpt><trkpt lat="41.81558874140126" lon="0.7359068624455061"><ele>334.25</ele><time>2026-03-30T11:53:40Z</time></trkpt><trkpt lat="41.815655824808815" lon="0.7357871491888934"><ele>335.0</ele><time>2026-03-30T11:53:41Z</time></trkpt><trkpt lat="41.815724932692035" lon="0.7356676692908588"><ele>335.0</ele><time>2026-03-30T11:53:42Z</time></trkpt><trkpt lat="41.81580494114199" lon="0.735510432713243"><ele>335.0</ele><time>2026-03-30T11:53:43Z</time></trkpt><trkpt lat="41.8159024458867" lon="0.7353086235896179"><ele>335.0</ele><time>2026-03-30T11:53:44Z</time></trkpt><trkpt lat="41.81599180787422" lon="0.7350743391668098"><ele>338.6666666666667</ele><time>2026-03-30T11:53:45Z</time></trkpt><trkpt lat="41.81605389323069" lon="0.7348135347611395"><ele>342.3333333333333</ele><time>2026-03-30T11:53:46Z</time></trkpt><trkpt lat="41.81609329778083" lon="0.7345359877239578"><ele>346.0</ele><time>2026-03-30T11:53:47Z</time></trkpt><trkpt lat="41.81611919641785" lon="0.7342789870167492"><ele>346.0</ele><time>2026-03-30T11:53:48Z</time></trkpt><trkpt lat="41.816136273712345" lon="0.7340507978450537"><ele>346.0</ele><time>2026-03-30T11:53:49Z</time></trkpt><trkpt lat="41.816159381399565" lon="0.7338286698314352"><ele>346.0</ele><time>2026-03-30T11:53:50Z</time></trkpt><trkpt lat="41.8161851278052" lon="0.7336098322162845"><ele>343.0</ele><time>2026-03-30T11:53:51Z</time></trkpt><trkpt lat="41.81621288337154" lon="0.7333770004797462"><ele>340.0</ele><time>2026-03-30T11:53:52Z</time></trkpt><trkpt lat="41.81623979532162" lon="0.7331580390303882"><ele>337.0</ele><time>2026-03-30T11:53:53Z</time></trkpt><trkpt lat="41.816261854372485" lon="0.7329701241987941"><ele>337.0</ele><time>2026-03-30T11:53:54Z</time></trkpt><trkpt lat="41.81627946460242" lon="0.7328381759045308"><ele>337.0</ele><time>2026-03-30T11:53:55Z</time></trkpt><trkpt lat="41.816291654764704" lon="0.7327484312663642"><ele>337.0</ele><time>2026-03-30T11:53:56Z</time></trkpt><trkpt lat="41.81630802889097" lon="0.7326269938395454"><ele>337.0</ele><time>2026-03-30T11:54:13Z</time></trkpt><trkpt lat="41.816326248805645" lon="0.7325419096282783"><ele>337.0</ele><time>2026-03-30T11:54:14Z</time></trkpt><trkpt lat="41.81635207785352" lon="0.7324364119062132"><ele>337.0</ele><time>2026-03-30T11:54:15Z</time></trkpt><trkpt lat="41.81638235516413" lon="0.7323248354770522"><ele>334.75</ele><time>2026-03-30T11:54:16Z</time></trkpt><trkpt lat="41.81642208568869" lon="0.7322064409778435"><ele>332.5</ele><time>2026-03-30T11:54:17Z</time></trkpt><trkpt lat="41.816484675146256" lon="0.7320693796718405"><ele>330.25</ele><time>2026-03-30T11:54:18Z</time></trkpt><trkpt lat="41.81656515407811" lon="0.7319242471904156"><ele>328.0</ele><time>2026-03-30T11:54:19Z</time></trkpt><trkpt lat="41.816661165818246" lon="0.7317718586164318"><ele>327.0</ele><time>2026-03-30T11:54:20Z</time></trkpt><trkpt lat="41.81676462058715" lon="0.7316183109405865"><ele>326.0</ele><time>2026-03-30T11:54:21Z</time></trkpt><trkpt lat="41.816865093631385" lon="0.7314608608517166"><ele>325.0</ele><time>2026-03-30T11:54:22Z</time></trkpt><trkpt lat="41.816966816626476" lon="0.7312965541099089"><ele>325.0</ele><time>2026-03-30T11:54:23Z</time></trkpt><trkpt lat="41.81707063062984" lon="0.7311415679617695"><ele>325.0</ele><time>2026-03-30T11:54:24Z</time></trkpt><trkpt lat="41.81717346357468" lon="0.7309815588401908"><ele>325.0</ele><time>2026-03-30T11:54:25Z</time></trkpt><trkpt lat="41.81727832315209" lon="0.7308169372867467"><ele>323.66666666666663</ele><time>2026-03-30T11:54:26Z</time></trkpt><trkpt lat="41.817383952288516" lon="0.730656147789866"><ele>322.3333333333333</ele><time>2026-03-30T11:54:27Z</time></trkpt><trkpt lat="41.81747947268068" lon="0.7305023097542852"><ele>321.0</ele><time>2026-03-30T11:54:28Z</time></trkpt><trkpt lat="41.81756608270208" lon="0.7303431885211635"><ele>320.75</ele><time>2026-03-30T11:54:29Z</time></trkpt><trkpt lat="41.81764119108604" lon="0.7301800257800122"><ele>320.5</ele><time>2026-03-30T11:54:30Z</time></trkpt><trkpt lat="41.817701482840256" lon="0.7300025486082059"><ele>320.25</ele><time>2026-03-30T11:54:31Z</time></trkpt><trkpt lat="41.817735595319405" lon="0.7298023061753921"><ele>320.0</ele><time>2026-03-30T11:54:32Z</time></trkpt><trkpt lat="41.81774966150962" lon="0.7295948345785116"><ele>319.33333333333337</ele><time>2026-03-30T11:54:33Z</time></trkpt><trkpt lat="41.81774907306622" lon="0.7293838125143463"><ele>318.6666666666667</ele><time>2026-03-30T11:54:34Z</time></trkpt><trkpt lat="41.8177341144834" lon="0.7291763869187562"><ele>318.0</ele><time>2026-03-30T11:54:35Z</time></trkpt><trkpt lat="41.81771815192742" lon="0.7289871450898895"><ele>318.0</ele><time>2026-03-30T11:54:36Z</time></trkpt><trkpt lat="41.8177037158926" lon="0.7288076709580574"><ele>318.0</ele><time>2026-03-30T11:54:37Z</time></trkpt><trkpt lat="41.81769114844599" lon="0.7286360955556799"><ele>318.0</ele><time>2026-03-30T11:54:38Z</time></trkpt><trkpt lat="41.81767761427823" lon="0.7284821723986173"><ele>318.0</ele><time>2026-03-30T11:54:39Z</time></trkpt><trkpt lat="41.81763272750887" lon="0.7283308107218956"><ele>318.5</ele><time>2026-03-30T11:54:40Z</time></trkpt><trkpt lat="41.817551176128745" lon="0.7281934670595306"><ele>319.0</ele><time>2026-03-30T11:54:41Z</time></trkpt><trkpt lat="41.81743957848581" lon="0.7280784654729637"><ele>319.5</ele><time>2026-03-30T11:54:42Z</time></trkpt><trkpt lat="41.81729660650135" lon="0.7279796824703344"><ele>320.0</ele><time>2026-03-30T11:54:43Z</time></trkpt><trkpt lat="41.81714594170106" lon="0.7278909322204573"><ele>320.0</ele><time>2026-03-30T11:54:44Z</time></trkpt><trkpt lat="41.81699099505417" lon="0.727803012686844"><ele>320.0</ele><time>2026-03-30T11:54:45Z</time></trkpt><trkpt lat="41.816842201740485" lon="0.7277007048103216"><ele>320.0</ele><time>2026-03-30T11:54:46Z</time></trkpt><trkpt lat="41.816696370494974" lon="0.7275948417826956"><ele>321.6666666666667</ele><time>2026-03-30T11:54:47Z</time></trkpt><trkpt lat="41.81654207730831" lon="0.727493827087945"><ele>323.3333333333333</ele><time>2026-03-30T11:54:48Z</time></trkpt><trkpt lat="41.81638665754425" lon="0.7273872607232322"><ele>325.0</ele><time>2026-03-30T11:54:49Z</time></trkpt><trkpt lat="41.81622355303021" lon="0.7272794279172815"><ele>325.0</ele><time>2026-03-30T11:54:50Z</time></trkpt><trkpt lat="41.81606364838034" lon="0.72717074618894"><ele>325.0</ele><time>2026-03-30T11:54:51Z</time></trkpt><trkpt lat="41.815917077936554" lon="0.7270724560685223"><ele>325.0</ele><time>2026-03-30T11:54:52Z</time></trkpt><trkpt lat="41.815768480493105" lon="0.7269734674456979"><ele>326.3333333333333</ele><time>2026-03-30T11:54:53Z</time></trkpt><trkpt lat="41.81562303872532" lon="0.7268736627980446"><ele>327.6666666666667</ele><time>2026-03-30T11:54:54Z</time></trkpt><trkpt lat="41.815486821267626" lon="0.7267651908995714"><ele>329.0</ele><time>2026-03-30T11:54:55Z</time></trkpt><trkpt lat="41.815360649950804" lon="0.7266264236208315"><ele>329.0</ele><time>2026-03-30T11:54:56Z</time></trkpt><trkpt lat="41.81527881969325" lon="0.7264360116029899"><ele>329.0</ele><time>2026-03-30T11:54:57Z</time></trkpt><trkpt lat="41.81521787905982" lon="0.7262163239580995"><ele>329.0</ele><time>2026-03-30T11:54:58Z</time></trkpt><trkpt lat="41.815177767039124" lon="0.72596876574884"><ele>329.33333333333337</ele><time>2026-03-30T11:54:59Z</time></trkpt><trkpt lat="41.81513413540978" lon="0.725701455522268"><ele>329.6666666666667</ele><time>2026-03-30T11:55:00Z</time></trkpt><trkpt lat="41.815079633585604" lon="0.7254192083804495"><ele>330.0</ele><time>2026-03-30T11:55:01Z</time></trkpt><trkpt lat="41.81502292855738" lon="0.7251391936907087"><ele>331.0</ele><time>2026-03-30T11:55:02Z</time></trkpt><trkpt lat="41.81496875887735" lon="0.7248645585029373"><ele>332.0</ele><time>2026-03-30T11:55:03Z</time></trkpt><trkpt lat="41.81491248314629" lon="0.7245847173202736"><ele>333.0</ele><time>2026-03-30T11:55:04Z</time></trkpt><trkpt lat="41.81485363587836" lon="0.7242859544763076"><ele>334.0</ele><time>2026-03-30T11:55:05Z</time></trkpt><trkpt lat="41.81479911915976" lon="0.7239960453363807"><ele>335.0</ele><time>2026-03-30T11:55:06Z</time></trkpt><trkpt lat="41.814741309326635" lon="0.7236935476810622"><ele>335.0</ele><time>2026-03-30T11:55:07Z</time></trkpt><trkpt lat="41.814684141952085" lon="0.7233935406433788"><ele>335.0</ele><time>2026-03-30T11:55:08Z</time></trkpt><trkpt lat="41.814624613025735" lon="0.7230848306412769"><ele>335.0</ele><time>2026-03-30T11:55:09Z</time></trkpt><trkpt lat="41.814564456475864" lon="0.7227723647437116"><ele>335.0</ele><time>2026-03-30T11:55:10Z</time></trkpt><trkpt lat="41.81450316001288" lon="0.7224570320987503"><ele>336.0</ele><time>2026-03-30T11:55:11Z</time></trkpt><trkpt lat="41.81444042505466" lon="0.7221389896738847"><ele>337.0</ele><time>2026-03-30T11:55:12Z</time></trkpt><trkpt lat="41.81437797883137" lon="0.7218189848889446"><ele>334.5</ele><time>2026-03-30T11:55:13Z</time></trkpt><trkpt lat="41.81431456311669" lon="0.7214975858865058"><ele>332.0</ele><time>2026-03-30T11:55:14Z</time></trkpt><trkpt lat="41.8142548173084" lon="0.7211655274926059"><ele>333.5</ele><time>2026-03-30T11:55:15Z</time></trkpt><trkpt lat="41.81419322734889" lon="0.7208215578883808"><ele>335.0</ele><time>2026-03-30T11:55:16Z</time></trkpt><trkpt lat="41.814125391773665" lon="0.7204802155635803"><ele>336.0</ele><time>2026-03-30T11:55:17Z</time></trkpt><trkpt lat="41.81405393969611" lon="0.7201389360012169"><ele>337.0</ele><time>2026-03-30T11:55:18Z</time></trkpt><trkpt lat="41.81398302548995" lon="0.7197969999048105"><ele>337.0</ele><time>2026-03-30T11:55:19Z</time></trkpt><trkpt lat="41.81391707340897" lon="0.7194570189745029"><ele>337.0</ele><time>2026-03-30T11:55:20Z</time></trkpt><trkpt lat="41.813854652028205" lon="0.7191220050818528"><ele>338.0</ele><time>2026-03-30T11:55:21Z</time></trkpt><trkpt lat="41.813783696550544" lon="0.7187957191250096"><ele>339.0</ele><time>2026-03-30T11:55:22Z</time></trkpt><trkpt lat="41.81371520930115" lon="0.718476764121588"><ele>339.0</ele><time>2026-03-30T11:55:23Z</time></trkpt><trkpt lat="41.81363544879311" lon="0.7181627099634339"><ele>339.0</ele><time>2026-03-30T11:55:24Z</time></trkpt><trkpt lat="41.81353830195061" lon="0.7178594738766326"><ele>338.5</ele><time>2026-03-30T11:55:25Z</time></trkpt><trkpt lat="41.81341875392545" lon="0.7175688735986577"><ele>338.0</ele><time>2026-03-30T11:55:26Z</time></trkpt><trkpt lat="41.8132792911239" lon="0.7172901104357762"><ele>338.0</ele><time>2026-03-30T11:55:27Z</time></trkpt><trkpt lat="41.81313669446018" lon="0.7170099479640853"><ele>338.0</ele><time>2026-03-30T11:55:28Z</time></trkpt><trkpt lat="41.81299783891375" lon="0.7167168768637827"><ele>337.5</ele><time>2026-03-30T11:55:29Z</time></trkpt><trkpt lat="41.812858206615026" lon="0.7164153775009248"><ele>337.0</ele><time>2026-03-30T11:55:30Z</time></trkpt><trkpt lat="41.8127159651552" lon="0.7161098078399535"><ele>335.0</ele><time>2026-03-30T11:55:31Z</time></trkpt><trkpt lat="41.8125689574588" lon="0.7157952267955093"><ele>333.0</ele><time>2026-03-30T11:55:32Z</time></trkpt><trkpt lat="41.81243016545435" lon="0.7154871945044132"><ele>333.5</ele><time>2026-03-30T11:55:33Z</time></trkpt><trkpt lat="41.81229016596527" lon="0.7151813395478286"><ele>334.0</ele><time>2026-03-30T11:55:34Z</time></trkpt><trkpt lat="41.81215217405174" lon="0.7148776929655273"><ele>334.0</ele><time>2026-03-30T11:55:35Z</time></trkpt><trkpt lat="41.812010261154555" lon="0.7145760573451646"><ele>334.0</ele><time>2026-03-30T11:55:36Z</time></trkpt><trkpt lat="41.81186898486796" lon="0.7142822393407771"><ele>332.5</ele><time>2026-03-30T11:55:37Z</time></trkpt><trkpt lat="41.81173130054086" lon="0.7139924135776295"><ele>331.0</ele><time>2026-03-30T11:55:38Z</time></trkpt><trkpt lat="41.8115918659127" lon="0.7137002537510292"><ele>330.5</ele><time>2026-03-30T11:55:39Z</time></trkpt><trkpt lat="41.81145442176246" lon="0.7134043048856187"><ele>330.0</ele><time>2026-03-30T11:55:40Z</time></trkpt><trkpt lat="41.81131616765045" lon="0.713109304657767"><ele>330.0</ele><time>2026-03-30T11:55:41Z</time></trkpt><trkpt lat="41.81117299420489" lon="0.7128081415606036"><ele>330.0</ele><time>2026-03-30T11:55:42Z</time></trkpt><trkpt lat="41.8110307210213" lon="0.7125004838352483"><ele>327.5</ele><time>2026-03-30T11:55:43Z</time></trkpt><trkpt lat="41.81089045991636" lon="0.7121954508927921"><ele>325.0</ele><time>2026-03-30T11:55:44Z</time></trkpt><trkpt lat="41.81075385435396" lon="0.7118970185683227"><ele>324.5</ele><time>2026-03-30T11:55:45Z</time></trkpt><trkpt lat="41.810612128241424" lon="0.7115939224738207"><ele>324.0</ele><time>2026-03-30T11:55:46Z</time></trkpt><trkpt lat="41.81047421117184" lon="0.7112903048086905"><ele>325.5</ele><time>2026-03-30T11:55:47Z</time></trkpt><trkpt lat="41.810335304318016" lon="0.7109909952954335"><ele>327.0</ele><time>2026-03-30T11:55:48Z</time></trkpt><trkpt lat="41.81019061674162" lon="0.7106877860490811"><ele>324.5</ele><time>2026-03-30T11:55:49Z</time></trkpt><trkpt lat="41.810049086623515" lon="0.7103821770722517"><ele>322.0</ele><time>2026-03-30T11:55:50Z</time></trkpt><trkpt lat="41.80991080081606" lon="0.7100757248119489"><ele>322.0</ele><time>2026-03-30T11:55:51Z</time></trkpt><trkpt lat="41.80977045525545" lon="0.7097720982298097"><ele>322.0</ele><time>2026-03-30T11:55:52Z</time></trkpt><trkpt lat="41.80962962142707" lon="0.7094738306071542"><ele>321.5</ele><time>2026-03-30T11:55:53Z</time></trkpt><trkpt lat="41.80948972815288" lon="0.7091762722666535"><ele>321.0</ele><time>2026-03-30T11:55:54Z</time></trkpt><trkpt lat="41.809353408875054" lon="0.7088828431480996"><ele>318.5</ele><time>2026-03-30T11:55:55Z</time></trkpt><trkpt lat="41.809216499510036" lon="0.7085902183086036"><ele>316.0</ele><time>2026-03-30T11:55:56Z</time></trkpt><trkpt lat="41.809075745622934" lon="0.7082938545787002"><ele>316.0</ele><time>2026-03-30T11:55:57Z</time></trkpt><trkpt lat="41.80893827809" lon="0.7079951877017906"><ele>316.0</ele><time>2026-03-30T11:55:58Z</time></trkpt><trkpt lat="41.80879852582071" lon="0.7076924845681876"><ele>316.5</ele><time>2026-03-30T11:55:59Z</time></trkpt><trkpt lat="41.80866537563157" lon="0.7073974397437239"><ele>317.0</ele><time>2026-03-30T11:56:00Z</time></trkpt><trkpt lat="41.808517399866076" lon="0.7070810542119604"><ele>315.5</ele><time>2026-03-30T11:56:01Z</time></trkpt><trkpt lat="41.80838684493477" lon="0.7067654061791349"><ele>314.0</ele><time>2026-03-30T11:56:02Z</time></trkpt><trkpt lat="41.808236660090635" lon="0.7064597519943057"><ele>314.0</ele><time>2026-03-30T11:56:03Z</time></trkpt><trkpt lat="41.80808725609749" lon="0.7061411753063215"><ele>314.0</ele><time>2026-03-30T11:56:04Z</time></trkpt><trkpt lat="41.80794055590781" lon="0.7058289620283725"><ele>314.0</ele><time>2026-03-30T11:56:05Z</time></trkpt><trkpt lat="41.807801868125" lon="0.7055102988471986"><ele>314.0</ele><time>2026-03-30T11:56:06Z</time></trkpt><trkpt lat="41.80767684820145" lon="0.7052067541451089"><ele>314.0</ele><time>2026-03-30T11:56:07Z</time></trkpt><trkpt lat="41.80754594248598" lon="0.7049838901988514"><ele>314.0</ele><time>2026-03-30T11:56:08Z</time></trkpt><trkpt lat="41.80742694821393" lon="0.7047633812317075"><ele>314.0</ele><time>2026-03-30T11:56:09Z</time></trkpt><trkpt lat="41.807321750868425" lon="0.7044855450786923"><ele>315.0</ele><time>2026-03-30T11:56:10Z</time></trkpt><trkpt lat="41.8072124595188" lon="0.7042531704122756"><ele>316.0</ele><time>2026-03-30T11:56:11Z</time></trkpt><trkpt lat="41.807090944943035" lon="0.704034044898482"><ele>317.0</ele><time>2026-03-30T11:56:12Z</time></trkpt><trkpt lat="41.80695991794338" lon="0.7038202807717955"><ele>317.5</ele><time>2026-03-30T11:56:13Z</time></trkpt><trkpt lat="41.80692876794043" lon="0.7034882950731263"><ele>318.0</ele><time>2026-03-30T11:56:14Z</time></trkpt><trkpt lat="41.80687284584673" lon="0.703175723373799"><ele>318.0</ele><time>2026-03-30T11:56:15Z</time></trkpt><trkpt lat="41.80683082037155" lon="0.7028422851398203"><ele>318.0</ele><time>2026-03-30T11:56:16Z</time></trkpt><trkpt lat="41.806769942804294" lon="0.7025113816011066"><ele>316.0</ele><time>2026-03-30T11:56:17Z</time></trkpt><trkpt lat="41.80670357980346" lon="0.702175830540636"><ele>314.0</ele><time>2026-03-30T11:56:18Z</time></trkpt><trkpt lat="41.80664082650827" lon="0.7018272729468011"><ele>313.5</ele><time>2026-03-30T11:56:19Z</time></trkpt><trkpt lat="41.80658084087739" lon="0.701487792771991"><ele>313.0</ele><time>2026-03-30T11:56:20Z</time></trkpt><trkpt lat="41.80651839745649" lon="0.7011449470886659"><ele>313.5</ele><time>2026-03-30T11:56:21Z</time></trkpt><trkpt lat="41.806454888677685" lon="0.7007987887663074"><ele>314.0</ele><time>2026-03-30T11:56:22Z</time></trkpt><trkpt lat="41.80639470825051" lon="0.7004544747608693"><ele>315.0</ele><time>2026-03-30T11:56:23Z</time></trkpt><trkpt lat="41.80633241008974" lon="0.7001156045862577"><ele>316.0</ele><time>2026-03-30T11:56:24Z</time></trkpt><trkpt lat="41.806268428274734" lon="0.69977916438907"><ele>316.0</ele><time>2026-03-30T11:56:25Z</time></trkpt><trkpt lat="41.80620567261622" lon="0.6994476323130738"><ele>316.0</ele><time>2026-03-30T11:56:26Z</time></trkpt><trkpt lat="41.80614347383922" lon="0.6991122909939347"><ele>316.5</ele><time>2026-03-30T11:56:27Z</time></trkpt><trkpt lat="41.806080055933855" lon="0.6987788460676497"><ele>317.0</ele><time>2026-03-30T11:56:28Z</time></trkpt><trkpt lat="41.806018022818776" lon="0.698452724417314"><ele>315.5</ele><time>2026-03-30T11:56:29Z</time></trkpt><trkpt lat="41.80595897387974" lon="0.6981284356512093"><ele>314.0</ele><time>2026-03-30T11:56:30Z</time></trkpt><trkpt lat="41.80589981283511" lon="0.6978047911500395"><ele>314.5</ele><time>2026-03-30T11:56:31Z</time></trkpt><trkpt lat="41.80584077806062" lon="0.6974883274770077"><ele>315.0</ele><time>2026-03-30T11:56:32Z</time></trkpt><trkpt lat="41.805784872815224" lon="0.6971787987785509"><ele>315.0</ele><time>2026-03-30T11:56:33Z</time></trkpt><trkpt lat="41.805731381924346" lon="0.6968676966117124"><ele>315.0</ele><time>2026-03-30T11:56:34Z</time></trkpt><trkpt lat="41.80567837030965" lon="0.6965511982145505"><ele>315.0</ele><time>2026-03-30T11:56:35Z</time></trkpt><trkpt lat="41.805626702874854" lon="0.6962358510163842"><ele>315.0</ele><time>2026-03-30T11:56:36Z</time></trkpt><trkpt lat="41.80560242505747" lon="0.695901710067403"><ele>315.0</ele><time>2026-03-30T11:56:37Z</time></trkpt><trkpt lat="41.80561467035308" lon="0.69554538434877"><ele>315.0</ele><time>2026-03-30T11:56:38Z</time></trkpt><trkpt lat="41.805644072930704" lon="0.695176976958961"><ele>314.0</ele><time>2026-03-30T11:56:39Z</time></trkpt><trkpt lat="41.80567771669881" lon="0.6948091335711284"><ele>313.0</ele><time>2026-03-30T11:56:40Z</time></trkpt><trkpt lat="41.80570777131968" lon="0.69444748433423"><ele>312.0</ele><time>2026-03-30T11:56:41Z</time></trkpt><trkpt lat="41.805726942535856" lon="0.6940890283167627"><ele>311.0</ele><time>2026-03-30T11:56:42Z</time></trkpt><trkpt lat="41.805741482246255" lon="0.6937259734028998"><ele>310.0</ele><time>2026-03-30T11:56:43Z</time></trkpt><trkpt lat="41.80576277625889" lon="0.6933494281284169"><ele>309.0</ele><time>2026-03-30T11:56:44Z</time></trkpt><trkpt lat="41.80578848320413" lon="0.6929598852210244"><ele>309.0</ele><time>2026-03-30T11:56:45Z</time></trkpt><trkpt lat="41.80581665868142" lon="0.6925692184079807"><ele>309.0</ele><time>2026-03-30T11:56:46Z</time></trkpt><trkpt lat="41.80584147606586" lon="0.6921778877894348"><ele>309.0</ele><time>2026-03-30T11:56:47Z</time></trkpt><trkpt lat="41.805864005970626" lon="0.6917864098780373"><ele>309.0</ele><time>2026-03-30T11:56:48Z</time></trkpt><trkpt lat="41.80588647572906" lon="0.6913922355736163"><ele>308.5</ele><time>2026-03-30T11:56:49Z</time></trkpt><trkpt lat="41.805909650370296" lon="0.6909968688960988"><ele>308.0</ele><time>2026-03-30T11:56:50Z</time></trkpt><trkpt lat="41.80593430979686" lon="0.6906022331894693"><ele>308.0</ele><time>2026-03-30T11:56:51Z</time></trkpt><trkpt lat="41.80595968144686" lon="0.6902019442498591"><ele>308.0</ele><time>2026-03-30T11:56:52Z</time></trkpt><trkpt lat="41.80598473054814" lon="0.6897939855924916"><ele>311.0</ele><time>2026-03-30T11:56:53Z</time></trkpt><trkpt lat="41.80601126160459" lon="0.6893815116253204"><ele>314.0</ele><time>2026-03-30T11:56:54Z</time></trkpt><trkpt lat="41.80603739742876" lon="0.6889767563823442"><ele>313.0</ele><time>2026-03-30T11:56:55Z</time></trkpt><trkpt lat="41.80606325234987" lon="0.6885817266256952"><ele>312.0</ele><time>2026-03-30T11:56:56Z</time></trkpt><trkpt lat="41.806086338162324" lon="0.6881854545782241"><ele>312.0</ele><time>2026-03-30T11:56:57Z</time></trkpt><trkpt lat="41.806109007245404" lon="0.6877874896948352"><ele>312.0</ele><time>2026-03-30T11:56:58Z</time></trkpt><trkpt lat="41.80613240005992" lon="0.6873839652179187"><ele>312.0</ele><time>2026-03-30T11:56:59Z</time></trkpt><trkpt lat="41.80615801834795" lon="0.6869800206785636"><ele>312.0</ele><time>2026-03-30T11:57:00Z</time></trkpt><trkpt lat="41.80618226090736" lon="0.6865666561254842"><ele>312.0</ele><time>2026-03-30T11:57:01Z</time></trkpt><trkpt lat="41.80620603329097" lon="0.6861607768969703"><ele>312.0</ele><time>2026-03-30T11:57:02Z</time></trkpt><trkpt lat="41.806231037002426" lon="0.6857561627433534"><ele>312.5</ele><time>2026-03-30T11:57:03Z</time></trkpt><trkpt lat="41.80625697094157" lon="0.6853534454312346"><ele>313.0</ele><time>2026-03-30T11:57:04Z</time></trkpt><trkpt lat="41.80627894918295" lon="0.6849545833674386"><ele>313.0</ele><time>2026-03-30T11:57:05Z</time></trkpt><trkpt lat="41.80630244773917" lon="0.6845538730011724"><ele>313.0</ele><time>2026-03-30T11:57:06Z</time></trkpt><trkpt lat="41.80632788846332" lon="0.684146844525759"><ele>313.0</ele><time>2026-03-30T11:57:07Z</time></trkpt><trkpt lat="41.80635386233946" lon="0.6837426177051448"><ele>313.0</ele><time>2026-03-30T11:57:08Z</time></trkpt><trkpt lat="41.806379341350414" lon="0.6833361061105152"><ele>314.0</ele><time>2026-03-30T11:57:09Z</time></trkpt><trkpt lat="41.80640401438119" lon="0.6829304637917084"><ele>315.0</ele><time>2026-03-30T11:57:10Z</time></trkpt><trkpt lat="41.80642900151519" lon="0.6825289877152612"><ele>315.0</ele><time>2026-03-30T11:57:11Z</time></trkpt><trkpt lat="41.806452988158235" lon="0.6821284577193595"><ele>315.0</ele><time>2026-03-30T11:57:12Z</time></trkpt><trkpt lat="41.80647697501026" lon="0.681724671792827"><ele>315.0</ele><time>2026-03-30T11:57:13Z</time></trkpt><trkpt lat="41.80650193334554" lon="0.6813208253968753"><ele>315.0</ele><time>2026-03-30T11:57:14Z</time></trkpt><trkpt lat="41.806527241193244" lon="0.6809077935782412"><ele>315.0</ele><time>2026-03-30T11:57:15Z</time></trkpt><trkpt lat="41.80655357058488" lon="0.6804837371132788"><ele>315.0</ele><time>2026-03-30T11:57:16Z</time></trkpt><trkpt lat="41.806579023751354" lon="0.680068922676846"><ele>315.0</ele><time>2026-03-30T11:57:17Z</time></trkpt><trkpt lat="41.80660324110695" lon="0.6796650021304086"><ele>315.0</ele><time>2026-03-30T11:57:18Z</time></trkpt><trkpt lat="41.80662661177291" lon="0.6792646144751745"><ele>316.0</ele><time>2026-03-30T11:57:19Z</time></trkpt><trkpt lat="41.80664895113605" lon="0.6788742223222124"><ele>317.0</ele><time>2026-03-30T11:57:20Z</time></trkpt><trkpt lat="41.80667485789791" lon="0.6784908077387942"><ele>317.0</ele><time>2026-03-30T11:57:21Z</time></trkpt><trkpt lat="41.80669883024888" lon="0.6781042473877068"><ele>317.0</ele><time>2026-03-30T11:57:22Z</time></trkpt><trkpt lat="41.80672028508271" lon="0.6777200948197799"><ele>317.0</ele><time>2026-03-30T11:57:23Z</time></trkpt><trkpt lat="41.80674328288014" lon="0.677337158698982"><ele>317.0</ele><time>2026-03-30T11:57:24Z</time></trkpt><trkpt lat="41.806767718835026" lon="0.6769518005021092"><ele>318.5</ele><time>2026-03-30T11:57:25Z</time></trkpt><trkpt lat="41.80679419886693" lon="0.6765722128138908"><ele>320.0</ele><time>2026-03-30T11:57:26Z</time></trkpt><trkpt lat="41.80682169810526" lon="0.6761920114969893"><ele>322.0</ele><time>2026-03-30T11:57:27Z</time></trkpt><trkpt lat="41.8068472737088" lon="0.6758103548420147"><ele>324.0</ele><time>2026-03-30T11:57:28Z</time></trkpt><trkpt lat="41.80687690506315" lon="0.6754286263801003"><ele>325.0</ele><time>2026-03-30T11:57:29Z</time></trkpt><trkpt lat="41.80691404528111" lon="0.6750363753918862"><ele>326.0</ele><time>2026-03-30T11:57:30Z</time></trkpt><trkpt lat="41.806957135186245" lon="0.6746354034634884"><ele>325.5</ele><time>2026-03-30T11:57:31Z</time></trkpt><trkpt lat="41.80700030509391" lon="0.6742289280116592"><ele>325.0</ele><time>2026-03-30T11:57:32Z</time></trkpt><trkpt lat="41.80703930853263" lon="0.6738316781022188"><ele>324.5</ele><time>2026-03-30T11:57:33Z</time></trkpt><trkpt lat="41.80707492967663" lon="0.6734661400719348"><ele>324.0</ele><time>2026-03-30T11:57:34Z</time></trkpt><trkpt lat="41.807107448593534" lon="0.6731104240511326"><ele>324.0</ele><time>2026-03-30T11:57:35Z</time></trkpt><trkpt lat="41.80714098189299" lon="0.6727547518726793"><ele>324.0</ele><time>2026-03-30T11:57:36Z</time></trkpt><trkpt lat="41.807179583287805" lon="0.6723781504288395"><ele>324.0</ele><time>2026-03-30T11:57:37Z</time></trkpt><trkpt lat="41.80722087337256" lon="0.6719989805197275"><ele>324.0</ele><time>2026-03-30T11:57:38Z</time></trkpt><trkpt lat="41.80726028382651" lon="0.6716337147160201"><ele>323.0</ele><time>2026-03-30T11:57:39Z</time></trkpt><trkpt lat="41.807295876560616" lon="0.6712703109349586"><ele>322.0</ele><time>2026-03-30T11:57:40Z</time></trkpt><trkpt lat="41.80732956880293" lon="0.6709062351331756"><ele>321.5</ele><time>2026-03-30T11:57:41Z</time></trkpt><trkpt lat="41.80736569523931" lon="0.6705251571560191"><ele>321.0</ele><time>2026-03-30T11:57:42Z</time></trkpt><trkpt lat="41.80740836990994" lon="0.6701338791626036"><ele>321.0</ele><time>2026-03-30T11:57:43Z</time></trkpt><trkpt lat="41.80744895821255" lon="0.6697520795901537"><ele>321.0</ele><time>2026-03-30T11:57:44Z</time></trkpt><trkpt lat="41.8074823371815" lon="0.6693745877855246"><ele>320.5</ele><time>2026-03-30T11:57:45Z</time></trkpt><trkpt lat="41.807515039293826" lon="0.6690024317776173"><ele>320.0</ele><time>2026-03-30T11:57:46Z</time></trkpt><trkpt lat="41.80755202768564" lon="0.6686180199395854"><ele>321.0</ele><time>2026-03-30T11:57:47Z</time></trkpt><trkpt lat="41.807593640997645" lon="0.6682251139008419"><ele>322.0</ele><time>2026-03-30T11:57:48Z</time></trkpt><trkpt lat="41.807637841090134" lon="0.6678187632762663"><ele>322.5</ele><time>2026-03-30T11:57:49Z</time></trkpt><trkpt lat="41.80768142957731" lon="0.6674056386374313"><ele>323.0</ele><time>2026-03-30T11:57:50Z</time></trkpt><trkpt lat="41.80772385973613" lon="0.6669963231475664"><ele>323.5</ele><time>2026-03-30T11:57:51Z</time></trkpt><trkpt lat="41.80776530427831" lon="0.6665989417391691"><ele>324.0</ele><time>2026-03-30T11:57:52Z</time></trkpt><trkpt lat="41.807803983514454" lon="0.6662130646260769"><ele>325.5</ele><time>2026-03-30T11:57:53Z</time></trkpt><trkpt lat="41.807842489204056" lon="0.6658280381970747"><ele>327.0</ele><time>2026-03-30T11:57:54Z</time></trkpt><trkpt lat="41.80787992617506" lon="0.6654447847919568"><ele>326.0</ele><time>2026-03-30T11:57:55Z</time></trkpt><trkpt lat="41.807916955635555" lon="0.6650590534110155"><ele>325.0</ele><time>2026-03-30T11:57:56Z</time></trkpt><trkpt lat="41.807954303152606" lon="0.6646631075498012"><ele>324.5</ele><time>2026-03-30T11:57:57Z</time></trkpt><trkpt lat="41.80799279078312" lon="0.6642700124659636"><ele>324.0</ele><time>2026-03-30T11:57:58Z</time></trkpt><trkpt lat="41.808032366528494" lon="0.6638828768043586"><ele>324.5</ele><time>2026-03-30T11:57:59Z</time></trkpt><trkpt lat="41.80806897617167" lon="0.6635117502460318"><ele>325.0</ele><time>2026-03-30T11:58:00Z</time></trkpt><trkpt lat="41.80810644512593" lon="0.663153253617187"><ele>325.0</ele><time>2026-03-30T11:58:01Z</time></trkpt><trkpt lat="41.808143975441816" lon="0.6628005116553809"><ele>325.0</ele><time>2026-03-30T11:58:02Z</time></trkpt><trkpt lat="41.808178289763156" lon="0.6624572159578568"><ele>325.5</ele><time>2026-03-30T11:58:03Z</time></trkpt><trkpt lat="41.80821333606677" lon="0.6621211826981864"><ele>326.0</ele><time>2026-03-30T11:58:04Z</time></trkpt><trkpt lat="41.80824780819817" lon="0.6617854713545627"><ele>326.0</ele><time>2026-03-30T11:58:05Z</time></trkpt><trkpt lat="41.808282984494156" lon="0.6614420923127158"><ele>326.0</ele><time>2026-03-30T11:58:06Z</time></trkpt><trkpt lat="41.80831611127916" lon="0.6611001582131069"><ele>325.5</ele><time>2026-03-30T11:58:07Z</time></trkpt><trkpt lat="41.80834900586334" lon="0.6607659299847553"><ele>325.0</ele><time>2026-03-30T11:58:08Z</time></trkpt><trkpt lat="41.80838034828952" lon="0.6604383318746101"><ele>325.0</ele><time>2026-03-30T11:58:09Z</time></trkpt><trkpt lat="41.80841088674469" lon="0.6601080080046146"><ele>325.0</ele><time>2026-03-30T11:58:10Z</time></trkpt><trkpt lat="41.80844318881337" lon="0.6597869194276585"><ele>325.0</ele><time>2026-03-30T11:58:11Z</time></trkpt><trkpt lat="41.8084768081539" lon="0.659471598732017"><ele>325.0</ele><time>2026-03-30T11:58:12Z</time></trkpt><trkpt lat="41.808507289292734" lon="0.6591665946855558"><ele>326.3333333333333</ele><time>2026-03-30T11:58:13Z</time></trkpt><trkpt lat="41.80853550457666" lon="0.6588724086078338"><ele>327.6666666666667</ele><time>2026-03-30T11:58:14Z</time></trkpt><trkpt lat="41.80856776403638" lon="0.6585837529725935"><ele>329.0</ele><time>2026-03-30T11:58:15Z</time></trkpt><trkpt lat="41.80860512796768" lon="0.6582928546690866"><ele>329.0</ele><time>2026-03-30T11:58:16Z</time></trkpt><trkpt lat="41.8086482242687" lon="0.6580031997076377"><ele>329.0</ele><time>2026-03-30T11:58:17Z</time></trkpt><trkpt lat="41.80872723011923" lon="0.6577303567295942"><ele>329.0</ele><time>2026-03-30T11:58:18Z</time></trkpt><trkpt lat="41.80883469356102" lon="0.6574523513706132"><ele>329.0</ele><time>2026-03-30T11:58:19Z</time></trkpt><trkpt lat="41.80894483354237" lon="0.6571715581655294"><ele>329.0</ele><time>2026-03-30T11:58:20Z</time></trkpt><trkpt lat="41.80904623908828" lon="0.6568886575795752"><ele>328.5</ele><time>2026-03-30T11:58:21Z</time></trkpt><trkpt lat="41.80914273818538" lon="0.6566074496024062"><ele>328.0</ele><time>2026-03-30T11:58:22Z</time></trkpt><trkpt lat="41.80923595091316" lon="0.6563332747491414"><ele>329.5</ele><time>2026-03-30T11:58:23Z</time></trkpt><trkpt lat="41.80933103092693" lon="0.6560587016994918"><ele>331.0</ele><time>2026-03-30T11:58:24Z</time></trkpt><trkpt lat="41.80943188849099" lon="0.6557831403145292"><ele>331.0</ele><time>2026-03-30T11:58:25Z</time></trkpt><trkpt lat="41.80953254503847" lon="0.655509236203222"><ele>331.0</ele><time>2026-03-30T11:58:26Z</time></trkpt><trkpt lat="41.80963180963703" lon="0.6552241883601682"><ele>330.5</ele><time>2026-03-30T11:58:27Z</time></trkpt><trkpt lat="41.809727717510256" lon="0.6549433877525146"><ele>330.0</ele><time>2026-03-30T11:58:28Z</time></trkpt><trkpt lat="41.8098287213086" lon="0.654660901410671"><ele>329.0</ele><time>2026-03-30T11:58:29Z</time></trkpt><trkpt lat="41.80992751552773" lon="0.6543789842365201"><ele>328.0</ele><time>2026-03-30T11:58:30Z</time></trkpt><trkpt lat="41.81002286346463" lon="0.6540963155521458"><ele>328.0</ele><time>2026-03-30T11:58:31Z</time></trkpt><trkpt lat="41.810110580343604" lon="0.6538138831073396"><ele>328.0</ele><time>2026-03-30T11:58:32Z</time></trkpt><trkpt lat="41.81016676257897" lon="0.6535145626400077"><ele>330.0</ele><time>2026-03-30T11:58:33Z</time></trkpt><trkpt lat="41.81017141352051" lon="0.6532015851040424"><ele>332.0</ele><time>2026-03-30T11:58:34Z</time></trkpt><trkpt lat="41.81016580856074" lon="0.6528827347538646"><ele>332.0</ele><time>2026-03-30T11:58:35Z</time></trkpt><trkpt lat="41.81017055534469" lon="0.6525655767863842"><ele>332.0</ele><time>2026-03-30T11:58:36Z</time></trkpt><trkpt lat="41.81018611487292" lon="0.6522451651443676"><ele>331.5</ele><time>2026-03-30T11:58:37Z</time></trkpt><trkpt lat="41.81020024107946" lon="0.6519250684056713"><ele>331.0</ele><time>2026-03-30T11:58:38Z</time></trkpt><trkpt lat="41.8102114641423" lon="0.6516076497830051"><ele>331.0</ele><time>2026-03-30T11:58:39Z</time></trkpt><trkpt lat="41.810225298227856" lon="0.6512900956378246"><ele>331.0</ele><time>2026-03-30T11:58:40Z</time></trkpt><trkpt lat="41.810239209783724" lon="0.6509778139070105"><ele>331.5</ele><time>2026-03-30T11:58:41Z</time></trkpt><trkpt lat="41.81025118632682" lon="0.650662181900232"><ele>332.0</ele><time>2026-03-30T11:58:42Z</time></trkpt><trkpt lat="41.810261661590836" lon="0.6503477338395086"><ele>331.0</ele><time>2026-03-30T11:58:43Z</time></trkpt><trkpt lat="41.810273920206086" lon="0.6500337716661817"><ele>330.0</ele><time>2026-03-30T11:58:44Z</time></trkpt><trkpt lat="41.81028597509931" lon="0.6497263836448453"><ele>331.0</ele><time>2026-03-30T11:58:45Z</time></trkpt><trkpt lat="41.8102974768846" lon="0.6494132148929287"><ele>332.0</ele><time>2026-03-30T11:58:46Z</time></trkpt><trkpt lat="41.81031438327773" lon="0.6491045891226219"><ele>332.0</ele><time>2026-03-30T11:58:47Z</time></trkpt><trkpt lat="41.81033661637739" lon="0.6487883435309304"><ele>332.0</ele><time>2026-03-30T11:58:48Z</time></trkpt><trkpt lat="41.81036967738724" lon="0.6484614841425955"><ele>332.5</ele><time>2026-03-30T11:58:49Z</time></trkpt><trkpt lat="41.81040888997827" lon="0.6481508734593983"><ele>333.0</ele><time>2026-03-30T11:58:50Z</time></trkpt><trkpt lat="41.81045581782691" lon="0.6478442108195297"><ele>333.0</ele><time>2026-03-30T11:58:51Z</time></trkpt><trkpt lat="41.81052030825555" lon="0.6475406671611857"><ele>333.0</ele><time>2026-03-30T11:58:52Z</time></trkpt><trkpt lat="41.810592588609616" lon="0.6472304925211525"><ele>333.0</ele><time>2026-03-30T11:58:53Z</time></trkpt><trkpt lat="41.810664591169335" lon="0.6469226674910182"><ele>333.0</ele><time>2026-03-30T11:58:54Z</time></trkpt><trkpt lat="41.81074719724762" lon="0.6466373455244752"><ele>333.0</ele><time>2026-03-30T11:58:55Z</time></trkpt><trkpt lat="41.81084518105222" lon="0.6463529037069484"><ele>333.0</ele><time>2026-03-30T11:58:56Z</time></trkpt><trkpt lat="41.81095375226345" lon="0.6460759322249451"><ele>333.0</ele><time>2026-03-30T11:58:57Z</time></trkpt><trkpt lat="41.811067511499324" lon="0.6457965985402908"><ele>333.0</ele><time>2026-03-30T11:58:58Z</time></trkpt><trkpt lat="41.8111852536365" lon="0.6455203892357322"><ele>332.0</ele><time>2026-03-30T11:58:59Z</time></trkpt><trkpt lat="41.81130581429353" lon="0.6452506680484202"><ele>331.0</ele><time>2026-03-30T11:59:00Z</time></trkpt><trkpt lat="41.811424234839116" lon="0.6449846223135497"><ele>331.0</ele><time>2026-03-30T11:59:01Z</time></trkpt><trkpt lat="41.81154059369364" lon="0.6447150549656179"><ele>331.0</ele><time>2026-03-30T11:59:02Z</time></trkpt><trkpt lat="41.811656947527005" lon="0.644446587070268"><ele>330.0</ele><time>2026-03-30T11:59:03Z</time></trkpt><trkpt lat="41.81177441288587" lon="0.6441736151518197"><ele>329.0</ele><time>2026-03-30T11:59:04Z</time></trkpt><trkpt lat="41.81189161455958" lon="0.6438931274851601"><ele>332.0</ele><time>2026-03-30T11:59:05Z</time></trkpt><trkpt lat="41.81201346983247" lon="0.6436023925555716"><ele>335.0</ele><time>2026-03-30T11:59:06Z</time></trkpt><trkpt lat="41.81214487912287" lon="0.643308126566873"><ele>335.0</ele><time>2026-03-30T11:59:07Z</time></trkpt><trkpt lat="41.81227341639239" lon="0.6430250119752251"><ele>335.0</ele><time>2026-03-30T11:59:08Z</time></trkpt><trkpt lat="41.81239266697659" lon="0.6427437216901791"><ele>334.5</ele><time>2026-03-30T11:59:09Z</time></trkpt><trkpt lat="41.81250981646039" lon="0.6424696290495759"><ele>334.0</ele><time>2026-03-30T11:59:10Z</time></trkpt><trkpt lat="41.812627500606006" lon="0.6422017432268172"><ele>334.5</ele><time>2026-03-30T11:59:11Z</time></trkpt><trkpt lat="41.81274286742645" lon="0.6419332695840768"><ele>335.0</ele><time>2026-03-30T11:59:12Z</time></trkpt><trkpt lat="41.812858452083326" lon="0.6416637859599404"><ele>335.0</ele><time>2026-03-30T11:59:13Z</time></trkpt><trkpt lat="41.812971893223704" lon="0.6413915680066336"><ele>335.0</ele><time>2026-03-30T11:59:14Z</time></trkpt><trkpt lat="41.81307923748044" lon="0.6411162403112923"><ele>335.6666666666667</ele><time>2026-03-30T11:59:15Z</time></trkpt><trkpt lat="41.81317573071796" lon="0.6408420190760251"><ele>336.3333333333333</ele><time>2026-03-30T11:59:16Z</time></trkpt><trkpt lat="41.81325554708419" lon="0.6405825560391615"><ele>337.0</ele><time>2026-03-30T11:59:17Z</time></trkpt><trkpt lat="41.81332342507471" lon="0.6403614943712955"><ele>337.5</ele><time>2026-03-30T11:59:18Z</time></trkpt><trkpt lat="41.81337999507412" lon="0.6401732093890425"><ele>338.0</ele><time>2026-03-30T11:59:19Z</time></trkpt><trkpt lat="41.813432426095545" lon="0.640000123501631"><ele>338.5</ele><time>2026-03-30T11:59:20Z</time></trkpt><trkpt lat="41.81348308358416" lon="0.6398338867874312"><ele>339.0</ele><time>2026-03-30T11:59:21Z</time></trkpt><trkpt lat="41.8135411203581" lon="0.6396564277697463"><ele>339.25</ele><time>2026-03-30T11:59:22Z</time></trkpt><trkpt lat="41.81359626132261" lon="0.6394834740535464"><ele>339.5</ele><time>2026-03-30T11:59:23Z</time></trkpt><trkpt lat="41.81365227915321" lon="0.6393010403987949"><ele>339.75</ele><time>2026-03-30T11:59:24Z</time></trkpt><trkpt lat="41.813710836555956" lon="0.6391171362537047"><ele>340.0</ele><time>2026-03-30T11:59:25Z</time></trkpt><trkpt lat="41.81376852573292" lon="0.6389338250806567"><ele>340.75</ele><time>2026-03-30T11:59:26Z</time></trkpt><trkpt lat="41.81382566513074" lon="0.6387511088897405"><ele>341.5</ele><time>2026-03-30T11:59:27Z</time></trkpt><trkpt lat="41.81388197634339" lon="0.6385680782823278"><ele>342.25</ele><time>2026-03-30T11:59:28Z</time></trkpt><trkpt lat="41.813937016398654" lon="0.6383944876202127"><ele>343.0</ele><time>2026-03-30T11:59:29Z</time></trkpt><trkpt lat="41.813987153400966" lon="0.6382479121580722"><ele>343.16666666666663</ele><time>2026-03-30T11:59:30Z</time></trkpt><trkpt lat="41.81402879449338" lon="0.6381297250435771"><ele>343.3333333333333</ele><time>2026-03-30T11:59:31Z</time></trkpt><trkpt lat="41.814066790483196" lon="0.6380144009228848"><ele>343.5</ele><time>2026-03-30T11:59:32Z</time></trkpt><trkpt lat="41.81410200356887" lon="0.6379030465476919"><ele>343.6666666666667</ele><time>2026-03-30T11:59:33Z</time></trkpt><trkpt lat="41.81413063448318" lon="0.6378048481670849"><ele>343.83333333333337</ele><time>2026-03-30T11:59:34Z</time></trkpt><trkpt lat="41.81415798633835" lon="0.6377165010650627"><ele>344.0</ele><time>2026-03-30T11:59:35Z</time></trkpt><trkpt lat="41.814185243848286" lon="0.6376302440524405"><ele>344.33333333333337</ele><time>2026-03-30T11:59:36Z</time></trkpt><trkpt lat="41.81421401022808" lon="0.6375363887505174"><ele>344.6666666666667</ele><time>2026-03-30T11:59:37Z</time></trkpt><trkpt lat="41.8142440222333" lon="0.6374340975387284"><ele>345.0</ele><time>2026-03-30T11:59:38Z</time></trkpt><trkpt lat="41.814274867504665" lon="0.6373330128798211"><ele>345.3333333333333</ele><time>2026-03-30T11:59:39Z</time></trkpt><trkpt lat="41.81430603109137" lon="0.6372403230787586"><ele>345.66666666666663</ele><time>2026-03-30T11:59:40Z</time></trkpt><trkpt lat="41.81434184720518" lon="0.6371431742936046"><ele>346.0</ele><time>2026-03-30T11:59:41Z</time></trkpt><trkpt lat="41.8143697498829" lon="0.6370491374640443"><ele>346.3333333333333</ele><time>2026-03-30T11:59:42Z</time></trkpt><trkpt lat="41.81439838222745" lon="0.6369574441988608"><ele>346.66666666666663</ele><time>2026-03-30T11:59:43Z</time></trkpt><trkpt lat="41.814426132960484" lon="0.6368716633212944"><ele>347.0</ele><time>2026-03-30T11:59:44Z</time></trkpt><trkpt lat="41.81445466254839" lon="0.636785575677462"><ele>347.3333333333333</ele><time>2026-03-30T11:59:45Z</time></trkpt><trkpt lat="41.81449336520323" lon="0.6366609060825283"><ele>347.6666666666667</ele><time>2026-03-30T11:59:47Z</time></trkpt><trkpt lat="41.81453097898757" lon="0.6365486312753347"><ele>348.0</ele><time>2026-03-30T11:59:49Z</time></trkpt><trkpt lat="41.814567486822384" lon="0.6364190508043928"><ele>348.0</ele><time>2026-03-30T11:59:51Z</time></trkpt><trkpt lat="41.81462313807829" lon="0.6362571657525508"><ele>348.0</ele><time>2026-03-30T11:59:53Z</time></trkpt><trkpt lat="41.8146580173805" lon="0.6361545720645627"><ele>348.0</ele><time>2026-03-30T11:59:54Z</time></trkpt><trkpt lat="41.81469412185359" lon="0.6360418095537415"><ele>348.0</ele><time>2026-03-30T11:59:55Z</time></trkpt><trkpt lat="41.814726236294675" lon="0.635922649825772"><ele>348.0</ele><time>2026-03-30T11:59:56Z</time></trkpt><trkpt lat="41.814756714473816" lon="0.6357954414856076"><ele>348.3333333333333</ele><time>2026-03-30T11:59:57Z</time></trkpt><trkpt lat="41.8147832997054" lon="0.6356791314565757"><ele>348.6666666666667</ele><time>2026-03-30T11:59:58Z</time></trkpt><trkpt lat="41.81480211013013" lon="0.6355733357547969"><ele>349.0</ele><time>2026-03-30T11:59:59Z</time></trkpt><trkpt lat="41.814815818568924" lon="0.6354843397805265"><ele>349.33333333333337</ele><time>2026-03-30T12:00:00Z</time></trkpt><trkpt lat="41.81483261222629" lon="0.6353319883106058"><ele>349.6666666666667</ele><time>2026-03-30T12:00:02Z</time></trkpt><trkpt lat="41.81484576975904" lon="0.6352260693978956"><ele>350.0</ele><time>2026-03-30T12:00:04Z</time></trkpt><trkpt lat="41.81482332854179" lon="0.6351469943882571"><ele>350.0</ele><time>2026-03-30T12:00:06Z</time></trkpt><trkpt lat="41.81474773387824" lon="0.6351264779752989"><ele>350.0</ele><time>2026-03-30T12:00:10Z</time></trkpt><trkpt lat="41.814679735548644" lon="0.635165955707111"><ele>350.0</ele><time>2026-03-30T12:00:15Z</time></trkpt><trkpt lat="41.81465954224953" lon="0.6352507224881732"><ele>350.0</ele><time>2026-03-30T12:01:19Z</time></trkpt><trkpt lat="41.81458620946393" lon="0.635241206988915"><ele>350.0</ele><time>2026-03-30T12:02:32Z</time></trkpt><trkpt lat="41.814518088373866" lon="0.6352574118544039"><ele>350.0</ele><time>2026-03-30T12:02:48Z</time></trkpt><trkpt lat="41.814434855849974" lon="0.635329552682466"><ele>350.0</ele><time>2026-03-30T12:04:09Z</time></trkpt><trkpt lat="41.81449915361952" lon="0.6352691035131866"><ele>350.0</ele><time>2026-03-30T12:05:35Z</time></trkpt><trkpt lat="41.81454879894967" lon="0.6353212844955131"><ele>350.0</ele><time>2026-03-30T12:54:14Z</time></trkpt><trkpt lat="41.81456475784877" lon="0.6352374145491126"><ele>350.0</ele><time>2026-03-30T12:59:32Z</time></trkpt><trkpt lat="41.814572101790965" lon="0.6353331345383527"><ele>350.0</ele><time>2026-03-30T13:04:03Z</time></trkpt><trkpt lat="41.81459767919813" lon="0.6352521212641915"><ele>350.0</ele><time>2026-03-30T13:04:06Z</time></trkpt><trkpt lat="41.81466452020143" lon="0.63522609183543"><ele>350.0</ele><time>2026-03-30T13:04:12Z</time></trkpt><trkpt lat="41.814652856030186" lon="0.6353239071162609"><ele>350.0</ele><time>2026-03-30T13:05:04Z</time></trkpt><trkpt lat="41.81462303370284" lon="0.6354188357264601"><ele>350.0</ele><time>2026-03-30T13:05:07Z</time></trkpt><trkpt lat="41.81468931501504" lon="0.6353840820318837"><ele>350.0</ele><time>2026-03-30T13:07:38Z</time></trkpt><trkpt lat="41.814626245996365" lon="0.6354366738583935"><ele>350.0</ele><time>2026-03-30T13:09:04Z</time></trkpt><trkpt lat="41.81460634879852" lon="0.6355353191665047"><ele>350.0</ele><time>2026-03-30T13:09:08Z</time></trkpt><trkpt lat="41.814634453964395" lon="0.6356245578600489"><ele>350.0</ele><time>2026-03-30T13:09:11Z</time></trkpt><trkpt lat="41.814735262205076" lon="0.6356390767460822"><ele>350.0</ele><time>2026-03-30T13:14:29Z</time></trkpt><trkpt lat="41.81477124515372" lon="0.6355465865563297"><ele>350.0</ele><time>2026-03-30T13:14:31Z</time></trkpt><trkpt lat="41.81479509243329" lon="0.6354568508486594"><ele>350.0</ele><time>2026-03-30T13:14:32Z</time></trkpt><trkpt lat="41.81481741382469" lon="0.635365118671851"><ele>350.0</ele><time>2026-03-30T13:14:33Z</time></trkpt><trkpt lat="41.814833607841805" lon="0.6352719958430543"><ele>350.0</ele><time>2026-03-30T13:14:34Z</time></trkpt><trkpt lat="41.814847470912525" lon="0.6351757828167847"><ele>350.0</ele><time>2026-03-30T13:14:35Z</time></trkpt><trkpt lat="41.81486668073375" lon="0.6350689047266558"><ele>350.0</ele><time>2026-03-30T13:14:36Z</time></trkpt><trkpt lat="41.81489308949687" lon="0.6349470776199437"><ele>350.4</ele><time>2026-03-30T13:14:37Z</time></trkpt><trkpt lat="41.81492092499721" lon="0.634807249519439"><ele>350.8</ele><time>2026-03-30T13:14:38Z</time></trkpt><trkpt lat="41.814949282136745" lon="0.6346531722022706"><ele>351.20000000000005</ele><time>2026-03-30T13:14:39Z</time></trkpt><trkpt lat="41.814980490910315" lon="0.6345080639853127"><ele>351.6</ele><time>2026-03-30T13:14:40Z</time></trkpt><trkpt lat="41.81501233530819" lon="0.6343658894167121"><ele>352.0</ele><time>2026-03-30T13:14:41Z</time></trkpt><trkpt lat="41.815046222780715" lon="0.6342183768320707"><ele>352.0</ele><time>2026-03-30T13:14:42Z</time></trkpt><trkpt lat="41.815083559892194" lon="0.6340637815002175"><ele>352.0</ele><time>2026-03-30T13:14:43Z</time></trkpt><trkpt lat="41.81512701217268" lon="0.6338891074386516"><ele>352.0</ele><time>2026-03-30T13:14:44Z</time></trkpt><trkpt lat="41.81517052851251" lon="0.6337035298233608"><ele>352.0</ele><time>2026-03-30T13:14:45Z</time></trkpt><trkpt lat="41.81521128945456" lon="0.6335205534241874"><ele>352.25</ele><time>2026-03-30T13:14:46Z</time></trkpt><trkpt lat="41.81525673216899" lon="0.6333343960596152"><ele>352.5</ele><time>2026-03-30T13:14:47Z</time></trkpt><trkpt lat="41.81529963881326" lon="0.6331448546956978"><ele>352.75</ele><time>2026-03-30T13:14:48Z</time></trkpt><trkpt lat="41.81534021366159" lon="0.6329440713961421"><ele>353.0</ele><time>2026-03-30T13:14:49Z</time></trkpt><trkpt lat="41.815373646861694" lon="0.632740055068522"><ele>353.0</ele><time>2026-03-30T13:14:50Z</time></trkpt><trkpt lat="41.81540579748595" lon="0.6325229969525008"><ele>353.0</ele><time>2026-03-30T13:14:51Z</time></trkpt><trkpt lat="41.81543367664932" lon="0.6323018435442819"><ele>353.0</ele><time>2026-03-30T13:14:52Z</time></trkpt><trkpt lat="41.815453608656526" lon="0.63207984640305"><ele>352.6666666666667</ele><time>2026-03-30T13:14:53Z</time></trkpt><trkpt lat="41.81547302758608" lon="0.6318535573077197"><ele>352.3333333333333</ele><time>2026-03-30T13:14:54Z</time></trkpt><trkpt lat="41.815491851499786" lon="0.6316334141032935"><ele>352.0</ele><time>2026-03-30T13:14:55Z</time></trkpt><trkpt lat="41.81550902987233" lon="0.6314223563339221"><ele>352.0</ele><time>2026-03-30T13:14:56Z</time></trkpt><trkpt lat="41.81552550411077" lon="0.6312157154678535"><ele>352.0</ele><time>2026-03-30T13:14:57Z</time></trkpt><trkpt lat="41.81554180517419" lon="0.6310122176587365"><ele>352.0</ele><time>2026-03-30T13:14:58Z</time></trkpt><trkpt lat="41.815559459334686" lon="0.6308049480534864"><ele>351.66666666666663</ele><time>2026-03-30T13:14:59Z</time></trkpt><trkpt lat="41.81557776400607" lon="0.6305882436098896"><ele>351.3333333333333</ele><time>2026-03-30T13:15:00Z</time></trkpt><trkpt lat="41.815592075766205" lon="0.6303676200997261"><ele>351.0</ele><time>2026-03-30T13:15:01Z</time></trkpt><trkpt lat="41.81560826071948" lon="0.6301382460208043"><ele>351.0</ele><time>2026-03-30T13:15:02Z</time></trkpt><trkpt lat="41.815626709576996" lon="0.6299103476039624"><ele>351.0</ele><time>2026-03-30T13:15:03Z</time></trkpt><trkpt lat="41.81564599422166" lon="0.6296899072593035"><ele>351.0</ele><time>2026-03-30T13:15:04Z</time></trkpt><trkpt lat="41.81566437675743" lon="0.6294682511626166"><ele>352.0</ele><time>2026-03-30T13:15:05Z</time></trkpt><trkpt lat="41.815680948117844" lon="0.6292491142304818"><ele>353.0</ele><time>2026-03-30T13:15:06Z</time></trkpt><trkpt lat="41.81569998103397" lon="0.6290300276771834"><ele>354.0</ele><time>2026-03-30T13:15:07Z</time></trkpt><trkpt lat="41.815729894431655" lon="0.6288123838399997"><ele>353.3333333333333</ele><time>2026-03-30T13:15:08Z</time></trkpt><trkpt lat="41.81577241222051" lon="0.6285958924207339"><ele>352.66666666666663</ele><time>2026-03-30T13:15:09Z</time></trkpt><trkpt lat="41.81582803582688" lon="0.6283862016639444"><ele>352.0</ele><time>2026-03-30T13:15:10Z</time></trkpt><trkpt lat="41.81588824321059" lon="0.6281723612650825"><ele>352.0</ele><time>2026-03-30T13:15:11Z</time></trkpt><trkpt lat="41.81594915419244" lon="0.6279480074638719"><ele>352.0</ele><time>2026-03-30T13:15:12Z</time></trkpt><trkpt lat="41.81601138515034" lon="0.6277193372283694"><ele>352.0</ele><time>2026-03-30T13:15:13Z</time></trkpt><trkpt lat="41.81607483837807" lon="0.6274934969727712"><ele>354.3333333333333</ele><time>2026-03-30T13:15:14Z</time></trkpt><trkpt lat="41.81614087624916" lon="0.6272642887205172"><ele>356.6666666666667</ele><time>2026-03-30T13:15:15Z</time></trkpt><trkpt lat="41.81620907582824" lon="0.6270352643854573"><ele>359.0</ele><time>2026-03-30T13:15:16Z</time></trkpt><trkpt lat="41.816277439788024" lon="0.6268012132487316"><ele>359.0</ele><time>2026-03-30T13:15:17Z</time></trkpt><trkpt lat="41.816343809724245" lon="0.6265659805227746"><ele>359.0</ele><time>2026-03-30T13:15:18Z</time></trkpt><trkpt lat="41.81640654465171" lon="0.6263301399231727"><ele>359.0</ele><time>2026-03-30T13:15:19Z</time></trkpt><trkpt lat="41.816465813934265" lon="0.626093144127701"><ele>358.33333333333337</ele><time>2026-03-30T13:15:20Z</time></trkpt><trkpt lat="41.81652647596686" lon="0.6258734584484423"><ele>357.6666666666667</ele><time>2026-03-30T13:15:21Z</time></trkpt><trkpt lat="41.81658982562996" lon="0.6256334909065175"><ele>357.0</ele><time>2026-03-30T13:15:22Z</time></trkpt><trkpt lat="41.81665702707425" lon="0.6253833260635704"><ele>356.0</ele><time>2026-03-30T13:15:23Z</time></trkpt><trkpt lat="41.81672609952978" lon="0.6251210260225935"><ele>355.0</ele><time>2026-03-30T13:15:24Z</time></trkpt><trkpt lat="41.81680033038807" lon="0.6248396445007451"><ele>354.0</ele><time>2026-03-30T13:15:25Z</time></trkpt><trkpt lat="41.816876862172755" lon="0.6245577065109575"><ele>353.3333333333333</ele><time>2026-03-30T13:15:26Z</time></trkpt><trkpt lat="41.816953307399395" lon="0.6242729563199456"><ele>352.66666666666663</ele><time>2026-03-30T13:15:27Z</time></trkpt><trkpt lat="41.81702638043002" lon="0.6239905243883316"><ele>352.0</ele><time>2026-03-30T13:15:28Z</time></trkpt><trkpt lat="41.81709973889892" lon="0.6237068526937157"><ele>351.3333333333333</ele><time>2026-03-30T13:15:29Z</time></trkpt><trkpt lat="41.817175559238294" lon="0.6234257826829489"><ele>350.6666666666667</ele><time>2026-03-30T13:15:30Z</time></trkpt><trkpt lat="41.81725063201696" lon="0.6231476712929751"><ele>350.0</ele><time>2026-03-30T13:15:31Z</time></trkpt><trkpt lat="41.81732402859113" lon="0.6228689937845996"><ele>348.5</ele><time>2026-03-30T13:15:32Z</time></trkpt><trkpt lat="41.81739672900462" lon="0.6225867919496254"><ele>347.0</ele><time>2026-03-30T13:15:33Z</time></trkpt><trkpt lat="41.81747352537728" lon="0.6222926666556989"><ele>347.0</ele><time>2026-03-30T13:15:34Z</time></trkpt><trkpt lat="41.81755155518678" lon="0.6220030216593762"><ele>347.0</ele><time>2026-03-30T13:15:35Z</time></trkpt><trkpt lat="41.81762900879923" lon="0.6217100028345868"><ele>347.5</ele><time>2026-03-30T13:15:36Z</time></trkpt><trkpt lat="41.8177070208287" lon="0.6214118526686173"><ele>348.0</ele><time>2026-03-30T13:15:37Z</time></trkpt><trkpt lat="41.817784534176454" lon="0.621113655796773"><ele>347.0</ele><time>2026-03-30T13:15:38Z</time></trkpt><trkpt lat="41.817862286003674" lon="0.6208148831917925"><ele>346.0</ele><time>2026-03-30T13:15:39Z</time></trkpt><trkpt lat="41.81794003391225" lon="0.6205194597176414"><ele>346.0</ele><time>2026-03-30T13:15:40Z</time></trkpt><trkpt lat="41.81801918776753" lon="0.6202198746137529"><ele>346.0</ele><time>2026-03-30T13:15:41Z</time></trkpt><trkpt lat="41.81809851073213" lon="0.619917471812517"><ele>346.0</ele><time>2026-03-30T13:15:42Z</time></trkpt><trkpt lat="41.81817508359617" lon="0.6196223555595634"><ele>346.0</ele><time>2026-03-30T13:15:43Z</time></trkpt><trkpt lat="41.81825594529412" lon="0.6193151136468785"><ele>345.5</ele><time>2026-03-30T13:15:44Z</time></trkpt><trkpt lat="41.81833783514971" lon="0.6190074764994534"><ele>345.0</ele><time>2026-03-30T13:15:45Z</time></trkpt><trkpt lat="41.818420142013125" lon="0.6186990232546334"><ele>348.0</ele><time>2026-03-30T13:15:46Z</time></trkpt><trkpt lat="41.81850180388123" lon="0.618394917250216"><ele>351.0</ele><time>2026-03-30T13:15:47Z</time></trkpt><trkpt lat="41.81858203129947" lon="0.618094238110313"><ele>350.5</ele><time>2026-03-30T13:15:48Z</time></trkpt><trkpt lat="41.818662981009346" lon="0.6177855638211182"><ele>350.0</ele><time>2026-03-30T13:15:49Z</time></trkpt><trkpt lat="41.81874200757217" lon="0.6174816707403677"><ele>350.0</ele><time>2026-03-30T13:15:50Z</time></trkpt><trkpt lat="41.81881850143081" lon="0.6171868141673834"><ele>350.0</ele><time>2026-03-30T13:15:51Z</time></trkpt><trkpt lat="41.818896546048364" lon="0.6168907932990219"><ele>349.0</ele><time>2026-03-30T13:15:52Z</time></trkpt><trkpt lat="41.81897563302431" lon="0.616590450258747"><ele>348.0</ele><time>2026-03-30T13:15:53Z</time></trkpt><trkpt lat="41.81905038114185" lon="0.6162750063894732"><ele>347.0</ele><time>2026-03-30T13:15:54Z</time></trkpt><trkpt lat="41.81912272557462" lon="0.6159395967579062"><ele>346.0</ele><time>2026-03-30T13:15:55Z</time></trkpt><trkpt lat="41.8191857924188" lon="0.6156017698986499"><ele>345.0</ele><time>2026-03-30T13:15:56Z</time></trkpt><trkpt lat="41.819237208685955" lon="0.6152530289843221"><ele>344.0</ele><time>2026-03-30T13:15:57Z</time></trkpt><trkpt lat="41.819288221205525" lon="0.6148917839726398"><ele>347.0</ele><time>2026-03-30T13:15:58Z</time></trkpt><trkpt lat="41.819336665163966" lon="0.6145409998681145"><ele>350.0</ele><time>2026-03-30T13:15:59Z</time></trkpt><trkpt lat="41.81938579784886" lon="0.6141975445311846"><ele>350.0</ele><time>2026-03-30T13:16:00Z</time></trkpt><trkpt lat="41.81943625769313" lon="0.6138589007767832"><ele>350.0</ele><time>2026-03-30T13:16:01Z</time></trkpt><trkpt lat="41.81948235428117" lon="0.6135276400438177"><ele>349.0</ele><time>2026-03-30T13:16:02Z</time></trkpt><trkpt lat="41.81952749969152" lon="0.6131964328832528"><ele>348.0</ele><time>2026-03-30T13:16:03Z</time></trkpt><trkpt lat="41.81957588243179" lon="0.6128671527495271"><ele>348.0</ele><time>2026-03-30T13:16:04Z</time></trkpt><trkpt lat="41.8196241474934" lon="0.612545080068267"><ele>348.0</ele><time>2026-03-30T13:16:05Z</time></trkpt><trkpt lat="41.819669242004565" lon="0.6122220469820352"><ele>348.5</ele><time>2026-03-30T13:16:06Z</time></trkpt><trkpt lat="41.819715149200746" lon="0.6118959607834061"><ele>349.0</ele><time>2026-03-30T13:16:07Z</time></trkpt><trkpt lat="41.81976410880905" lon="0.6115540092575766"><ele>349.0</ele><time>2026-03-30T13:16:08Z</time></trkpt><trkpt lat="41.81981526314112" lon="0.6112063436021857"><ele>349.0</ele><time>2026-03-30T13:16:09Z</time></trkpt><trkpt lat="41.819866050971626" lon="0.6108605284523517"><ele>350.0</ele><time>2026-03-30T13:16:10Z</time></trkpt><trkpt lat="41.819915601116165" lon="0.610528071341885"><ele>351.0</ele><time>2026-03-30T13:16:11Z</time></trkpt><trkpt lat="41.81996520962479" lon="0.6102131061268873"><ele>351.5</ele><time>2026-03-30T13:16:12Z</time></trkpt><trkpt lat="41.82001056090905" lon="0.6098993523747267"><ele>352.0</ele><time>2026-03-30T13:16:13Z</time></trkpt><trkpt lat="41.82005307777509" lon="0.6095891272890468"><ele>351.0</ele><time>2026-03-30T13:16:14Z</time></trkpt><trkpt lat="41.820093337451496" lon="0.6092815998396455"><ele>350.0</ele><time>2026-03-30T13:16:15Z</time></trkpt><trkpt lat="41.82012211483991" lon="0.608967530036699"><ele>350.5</ele><time>2026-03-30T13:16:16Z</time></trkpt><trkpt lat="41.82014513817452" lon="0.6086472770432163"><ele>351.0</ele><time>2026-03-30T13:16:17Z</time></trkpt><trkpt lat="41.82017091750306" lon="0.6083224671549264"><ele>352.5</ele><time>2026-03-30T13:16:18Z</time></trkpt><trkpt lat="41.82020269077384" lon="0.6079894515849112"><ele>354.0</ele><time>2026-03-30T13:16:19Z</time></trkpt><trkpt lat="41.82023068124992" lon="0.6076496703601721"><ele>354.0</ele><time>2026-03-30T13:16:20Z</time></trkpt><trkpt lat="41.82025627797941" lon="0.6073220954875937"><ele>354.0</ele><time>2026-03-30T13:16:21Z</time></trkpt><trkpt lat="41.82028304690173" lon="0.6069938464955742"><ele>353.0</ele><time>2026-03-30T13:16:22Z</time></trkpt><trkpt lat="41.8203114750735" lon="0.6066703113472557"><ele>352.0</ele><time>2026-03-30T13:16:23Z</time></trkpt><trkpt lat="41.8203376383298" lon="0.6063416560162012"><ele>351.0</ele><time>2026-03-30T13:16:24Z</time></trkpt><trkpt lat="41.82036331494072" lon="0.6060161737641344"><ele>350.0</ele><time>2026-03-30T13:16:25Z</time></trkpt><trkpt lat="41.82039528386444" lon="0.6056794416283634"><ele>350.0</ele><time>2026-03-30T13:16:26Z</time></trkpt><trkpt lat="41.82044524076627" lon="0.6053449780917652"><ele>350.0</ele><time>2026-03-30T13:16:27Z</time></trkpt><trkpt lat="41.820511112189934" lon="0.6050191749686167"><ele>348.5</ele><time>2026-03-30T13:16:28Z</time></trkpt><trkpt lat="41.82057889790881" lon="0.6046890523361003"><ele>347.0</ele><time>2026-03-30T13:16:29Z</time></trkpt><trkpt lat="41.82064392535964" lon="0.6043607839396288"><ele>345.0</ele><time>2026-03-30T13:16:30Z</time></trkpt><trkpt lat="41.82071077513838" lon="0.6040292857427467"><ele>343.0</ele><time>2026-03-30T13:16:31Z</time></trkpt><trkpt lat="41.82077689319107" lon="0.6037006362287769"><ele>342.0</ele><time>2026-03-30T13:16:32Z</time></trkpt><trkpt lat="41.82084084437704" lon="0.6033712117811832"><ele>341.0</ele><time>2026-03-30T13:16:33Z</time></trkpt><trkpt lat="41.82090576242201" lon="0.6030467781308607"><ele>341.5</ele><time>2026-03-30T13:16:34Z</time></trkpt><trkpt lat="41.820974819255575" lon="0.6027196846182825"><ele>342.0</ele><time>2026-03-30T13:16:35Z</time></trkpt><trkpt lat="41.8210389234516" lon="0.6023961307744298"><ele>342.0</ele><time>2026-03-30T13:16:36Z</time></trkpt><trkpt lat="41.82110076285853" lon="0.6020717112395441"><ele>342.0</ele><time>2026-03-30T13:16:37Z</time></trkpt><trkpt lat="41.821164646948574" lon="0.6017491228694193"><ele>342.0</ele><time>2026-03-30T13:16:38Z</time></trkpt><trkpt lat="41.82122849673934" lon="0.6014277902473465"><ele>342.0</ele><time>2026-03-30T13:16:39Z</time></trkpt><trkpt lat="41.82129149913708" lon="0.6011088631907971"><ele>339.5</ele><time>2026-03-30T13:16:40Z</time></trkpt><trkpt lat="41.82135371147356" lon="0.6007927467880545"><ele>337.0</ele><time>2026-03-30T13:16:41Z</time></trkpt><trkpt lat="41.821414157257514" lon="0.6004768372010555"><ele>336.0</ele><time>2026-03-30T13:16:42Z</time></trkpt><trkpt lat="41.82147348213311" lon="0.6001620314634438"><ele>335.0</ele><time>2026-03-30T13:16:43Z</time></trkpt><trkpt lat="41.82153415875664" lon="0.5998491319773794"><ele>335.0</ele><time>2026-03-30T13:16:44Z</time></trkpt><trkpt lat="41.821589632685246" lon="0.5995394914527421"><ele>335.0</ele><time>2026-03-30T13:16:45Z</time></trkpt><trkpt lat="41.82162665771543" lon="0.5992239441943443"><ele>334.5</ele><time>2026-03-30T13:16:46Z</time></trkpt><trkpt lat="41.82163513327052" lon="0.5989024334448636"><ele>334.0</ele><time>2026-03-30T13:16:47Z</time></trkpt><trkpt lat="41.82161480299532" lon="0.5985781256565019"><ele>332.5</ele><time>2026-03-30T13:16:48Z</time></trkpt><trkpt lat="41.82157529508159" lon="0.5982526710708098"><ele>331.0</ele><time>2026-03-30T13:16:49Z</time></trkpt><trkpt lat="41.821534906664226" lon="0.5979329044107763"><ele>332.5</ele><time>2026-03-30T13:16:50Z</time></trkpt><trkpt lat="41.82149541585236" lon="0.5976161298151199"><ele>334.0</ele><time>2026-03-30T13:16:51Z</time></trkpt><trkpt lat="41.821455762784396" lon="0.5973043689128048"><ele>335.0</ele><time>2026-03-30T13:16:52Z</time></trkpt><trkpt lat="41.821413339782616" lon="0.5969946711152476"><ele>336.0</ele><time>2026-03-30T13:16:53Z</time></trkpt><trkpt lat="41.82137251151038" lon="0.5966887647760121"><ele>336.0</ele><time>2026-03-30T13:16:54Z</time></trkpt><trkpt lat="41.8213369113815" lon="0.5963887650030743"><ele>336.0</ele><time>2026-03-30T13:16:55Z</time></trkpt><trkpt lat="41.8213055055111" lon="0.5961064935831396"><ele>336.0</ele><time>2026-03-30T13:16:56Z</time></trkpt><trkpt lat="41.82127218534491" lon="0.5958106800385782"><ele>334.0</ele><time>2026-03-30T13:16:57Z</time></trkpt><trkpt lat="41.82126304103153" lon="0.5955149509716604"><ele>332.0</ele><time>2026-03-30T13:16:58Z</time></trkpt><trkpt lat="41.821271737594394" lon="0.5951975084472099"><ele>330.33333333333337</ele><time>2026-03-30T13:16:59Z</time></trkpt><trkpt lat="41.821280046366475" lon="0.5948949852851624"><ele>328.6666666666667</ele><time>2026-03-30T13:17:00Z</time></trkpt><trkpt lat="41.82128574807519" lon="0.5946064433519378"><ele>327.0</ele><time>2026-03-30T13:17:01Z</time></trkpt><trkpt lat="41.82128838806147" lon="0.594321627680695"><ele>325.6666666666667</ele><time>2026-03-30T13:17:02Z</time></trkpt><trkpt lat="41.82129021815749" lon="0.5940352156454928"><ele>324.33333333333337</ele><time>2026-03-30T13:17:03Z</time></trkpt><trkpt lat="41.821323739527614" lon="0.5937461505413291"><ele>323.0</ele><time>2026-03-30T13:17:04Z</time></trkpt><trkpt lat="41.821417952508455" lon="0.5934781098221071"><ele>322.0</ele><time>2026-03-30T13:17:05Z</time></trkpt><trkpt lat="41.82150989672764" lon="0.5932143181031244"><ele>321.0</ele><time>2026-03-30T13:17:06Z</time></trkpt><trkpt lat="41.821659091472235" lon="0.5930159989713263"><ele>320.0</ele><time>2026-03-30T13:17:07Z</time></trkpt><trkpt lat="41.82183216315239" lon="0.5928537113650172"><ele>318.0</ele><time>2026-03-30T13:17:08Z</time></trkpt><trkpt lat="41.8219968304952" lon="0.5926651830724159"><ele>316.0</ele><time>2026-03-30T13:17:09Z</time></trkpt><trkpt lat="41.82216690903817" lon="0.5924952498334144"><ele>314.0</ele><time>2026-03-30T13:17:10Z</time></trkpt><trkpt lat="41.822339307506034" lon="0.5923201669785658"><ele>314.0</ele><time>2026-03-30T13:17:11Z</time></trkpt><trkpt lat="41.8225201405782" lon="0.5921473323558673"><ele>314.0</ele><time>2026-03-30T13:17:12Z</time></trkpt><trkpt lat="41.822699768729876" lon="0.5919642206769798"><ele>314.0</ele><time>2026-03-30T13:17:13Z</time></trkpt><trkpt lat="41.82288917273686" lon="0.591791443047201"><ele>310.5</ele><time>2026-03-30T13:17:14Z</time></trkpt><trkpt lat="41.823095112292165" lon="0.5916492295709886"><ele>307.0</ele><time>2026-03-30T13:17:15Z</time></trkpt><trkpt lat="41.82330809539296" lon="0.5915304323572398"><ele>308.0</ele><time>2026-03-30T13:17:16Z</time></trkpt><trkpt lat="41.823515365613275" lon="0.5914019383299677"><ele>309.0</ele><time>2026-03-30T13:17:17Z</time></trkpt><trkpt lat="41.82371373711125" lon="0.591263459829459"><ele>308.3333333333333</ele><time>2026-03-30T13:17:18Z</time></trkpt><trkpt lat="41.82390738325746" lon="0.591111963125029"><ele>307.66666666666663</ele><time>2026-03-30T13:17:19Z</time></trkpt><trkpt lat="41.82407340937284" lon="0.5909086295702813"><ele>307.0</ele><time>2026-03-30T13:17:20Z</time></trkpt><trkpt lat="41.824208705957865" lon="0.5906675269226019"><ele>307.0</ele><time>2026-03-30T13:17:21Z</time></trkpt><trkpt lat="41.82431682805012" lon="0.5904051768615328"><ele>307.0</ele><time>2026-03-30T13:17:22Z</time></trkpt><trkpt lat="41.824386113904964" lon="0.5901237825718673"><ele>307.0</ele><time>2026-03-30T13:17:23Z</time></trkpt><trkpt lat="41.82441739189649" lon="0.5898354441435371"><ele>307.0</ele><time>2026-03-30T13:17:24Z</time></trkpt><trkpt lat="41.82443565406527" lon="0.5895395594107777"><ele>307.0</ele><time>2026-03-30T13:17:25Z</time></trkpt><trkpt lat="41.82446747969669" lon="0.5892310781366858"><ele>305.5</ele><time>2026-03-30T13:17:26Z</time></trkpt><trkpt lat="41.82450082126312" lon="0.5889095741185266"><ele>304.0</ele><time>2026-03-30T13:17:27Z</time></trkpt><trkpt lat="41.82453504467057" lon="0.5885898491110345"><ele>302.5</ele><time>2026-03-30T13:17:28Z</time></trkpt><trkpt lat="41.824567284359475" lon="0.5882714645193324"><ele>301.0</ele><time>2026-03-30T13:17:29Z</time></trkpt><trkpt lat="41.824600708715685" lon="0.5879514880472383"><ele>301.5</ele><time>2026-03-30T13:17:30Z</time></trkpt><trkpt lat="41.82463878226283" lon="0.5876302301770854"><ele>302.0</ele><time>2026-03-30T13:17:31Z</time></trkpt><trkpt lat="41.82467466251988" lon="0.5873071492710792"><ele>301.5</ele><time>2026-03-30T13:17:32Z</time></trkpt><trkpt lat="41.82470864507393" lon="0.586977659426191"><ele>301.0</ele><time>2026-03-30T13:17:33Z</time></trkpt><trkpt lat="41.82474244177454" lon="0.5866474335834719"><ele>301.0</ele><time>2026-03-30T13:17:34Z</time></trkpt><trkpt lat="41.82478052448802" lon="0.5863258019682717"><ele>301.0</ele><time>2026-03-30T13:17:35Z</time></trkpt><trkpt lat="41.82481780393314" lon="0.5860019599563646"><ele>299.5</ele><time>2026-03-30T13:17:36Z</time></trkpt><trkpt lat="41.82485556303602" lon="0.5856806544418075"><ele>298.0</ele><time>2026-03-30T13:17:37Z</time></trkpt><trkpt lat="41.824891956699" lon="0.5853612727335217"><ele>296.5</ele><time>2026-03-30T13:17:38Z</time></trkpt><trkpt lat="41.82493474369069" lon="0.5850458816377816"><ele>295.0</ele><time>2026-03-30T13:17:39Z</time></trkpt><trkpt lat="41.82498499550551" lon="0.5847385468840671"><ele>293.0</ele><time>2026-03-30T13:17:40Z</time></trkpt><trkpt lat="41.82504428926803" lon="0.584428663942903"><ele>291.0</ele><time>2026-03-30T13:17:41Z</time></trkpt><trkpt lat="41.8251136851634" lon="0.5841192142170671"><ele>292.5</ele><time>2026-03-30T13:17:42Z</time></trkpt><trkpt lat="41.82520104270708" lon="0.5838184683988344"><ele>294.0</ele><time>2026-03-30T13:17:43Z</time></trkpt><trkpt lat="41.825288139992125" lon="0.5835216567146784"><ele>296.5</ele><time>2026-03-30T13:17:44Z</time></trkpt><trkpt lat="41.82537690030623" lon="0.5832272065619339"><ele>299.0</ele><time>2026-03-30T13:17:45Z</time></trkpt><trkpt lat="41.825469816690735" lon="0.582936795418436"><ele>298.0</ele><time>2026-03-30T13:17:46Z</time></trkpt><trkpt lat="41.825578736892005" lon="0.5826604930806861"><ele>297.0</ele><time>2026-03-30T13:17:47Z</time></trkpt><trkpt lat="41.82568870757663" lon="0.5823917950503761"><ele>297.0</ele><time>2026-03-30T13:17:48Z</time></trkpt><trkpt lat="41.82583117768432" lon="0.5821475506954041"><ele>297.0</ele><time>2026-03-30T13:17:49Z</time></trkpt><trkpt lat="41.825959328186045" lon="0.5818991926910148"><ele>298.6666666666667</ele><time>2026-03-30T13:17:50Z</time></trkpt><trkpt lat="41.8260899191311" lon="0.5816549028473668"><ele>300.33333333333337</ele><time>2026-03-30T13:17:51Z</time></trkpt><trkpt lat="41.82622705610002" lon="0.5814238715810306"><ele>302.0</ele><time>2026-03-30T13:17:52Z</time></trkpt><trkpt lat="41.826370213997734" lon="0.5812011544486175"><ele>301.33333333333337</ele><time>2026-03-30T13:17:53Z</time></trkpt><trkpt lat="41.826519381049934" lon="0.5809875751510493"><ele>300.6666666666667</ele><time>2026-03-30T13:17:54Z</time></trkpt><trkpt lat="41.826677621459794" lon="0.5807883862061805"><ele>300.0</ele><time>2026-03-30T13:17:55Z</time></trkpt><trkpt lat="41.82685096593947" lon="0.5806167184174217"><ele>300.0</ele><time>2026-03-30T13:17:56Z</time></trkpt><trkpt lat="41.82703203985328" lon="0.580460148991869"><ele>300.0</ele><time>2026-03-30T13:17:57Z</time></trkpt><trkpt lat="41.827213489589" lon="0.5803167695604725"><ele>300.0</ele><time>2026-03-30T13:17:58Z</time></trkpt><trkpt lat="41.82740578506115" lon="0.5801992417287863"><ele>298.3333333333333</ele><time>2026-03-30T13:17:59Z</time></trkpt><trkpt lat="41.827602158963536" lon="0.5800977870802422"><ele>296.66666666666663</ele><time>2026-03-30T13:18:00Z</time></trkpt><trkpt lat="41.82779762511646" lon="0.5800075979097791"><ele>295.0</ele><time>2026-03-30T13:18:01Z</time></trkpt><trkpt lat="41.827994094619555" lon="0.5799139335195623"><ele>295.0</ele><time>2026-03-30T13:18:02Z</time></trkpt><trkpt lat="41.828189040055435" lon="0.5798224069742351"><ele>295.0</ele><time>2026-03-30T13:18:03Z</time></trkpt><trkpt lat="41.828377700685756" lon="0.5797316753755016"><ele>295.0</ele><time>2026-03-30T13:18:04Z</time></trkpt><trkpt lat="41.828552142516635" lon="0.5796441566642754"><ele>296.3333333333333</ele><time>2026-03-30T13:18:05Z</time></trkpt><trkpt lat="41.82870769441692" lon="0.5795509734172343"><ele>297.6666666666667</ele><time>2026-03-30T13:18:06Z</time></trkpt><trkpt lat="41.82883857209812" lon="0.579448102228271"><ele>299.0</ele><time>2026-03-30T13:18:07Z</time></trkpt><trkpt lat="41.828944209447116" lon="0.5793381502207119"><ele>296.0</ele><time>2026-03-30T13:18:08Z</time></trkpt><trkpt lat="41.829027117580345" lon="0.579241694358381"><ele>293.0</ele><time>2026-03-30T13:18:09Z</time></trkpt><trkpt lat="41.82909832460602" lon="0.5791536647225205"><ele>290.0</ele><time>2026-03-30T13:18:10Z</time></trkpt><trkpt lat="41.82914736853597" lon="0.5790526016190793"><ele>287.0</ele><time>2026-03-30T13:18:11Z</time></trkpt><trkpt lat="41.829158366729445" lon="0.5789358657991295"><ele>284.0</ele><time>2026-03-30T13:18:12Z</time></trkpt><trkpt lat="41.82914081022232" lon="0.5788479982965259"><ele>284.0</ele><time>2026-03-30T13:18:13Z</time></trkpt><trkpt lat="41.82912566684653" lon="0.5787595334046333"><ele>284.0</ele><time>2026-03-30T13:19:47Z</time></trkpt><trkpt lat="41.8291303196877" lon="0.5785944582107948"><ele>284.0</ele><time>2026-03-30T13:19:49Z</time></trkpt><trkpt lat="41.82914264378937" lon="0.5784959745404616"><ele>284.0</ele><time>2026-03-30T13:19:50Z</time></trkpt><trkpt lat="41.82915630502214" lon="0.5783728717637353"><ele>284.0</ele><time>2026-03-30T13:19:51Z</time></trkpt><trkpt lat="41.829172891409705" lon="0.5782362796750192"><ele>282.0</ele><time>2026-03-30T13:19:52Z</time></trkpt><trkpt lat="41.829188440834336" lon="0.5780784057408718"><ele>280.0</ele><time>2026-03-30T13:19:53Z</time></trkpt><trkpt lat="41.8292083294422" lon="0.5779114402280408"><ele>278.0</ele><time>2026-03-30T13:19:54Z</time></trkpt><trkpt lat="41.82922875548177" lon="0.5777372526024851"><ele>276.0</ele><time>2026-03-30T13:19:55Z</time></trkpt><trkpt lat="41.82925096244948" lon="0.577559110417511"><ele>276.0</ele><time>2026-03-30T13:19:56Z</time></trkpt><trkpt lat="41.82927443523597" lon="0.5773685977890662"><ele>276.0</ele><time>2026-03-30T13:19:57Z</time></trkpt><trkpt lat="41.82929728983132" lon="0.57714966093734"><ele>276.0</ele><time>2026-03-30T13:19:58Z</time></trkpt><trkpt lat="41.829319340465716" lon="0.5769357666866803"><ele>276.6666666666667</ele><time>2026-03-30T13:19:59Z</time></trkpt><trkpt lat="41.829337207747606" lon="0.5767212599353447"><ele>277.33333333333337</ele><time>2026-03-30T13:20:00Z</time></trkpt><trkpt lat="41.829351832141484" lon="0.5765087143936978"><ele>278.0</ele><time>2026-03-30T13:20:01Z</time></trkpt><trkpt lat="41.82936552480742" lon="0.5762954229415582"><ele>279.6666666666667</ele><time>2026-03-30T13:20:02Z</time></trkpt><trkpt lat="41.82938256066969" lon="0.5760943122764854"><ele>281.3333333333333</ele><time>2026-03-30T13:20:03Z</time></trkpt><trkpt lat="41.829403329331605" lon="0.5758933310871079"><ele>283.0</ele><time>2026-03-30T13:20:04Z</time></trkpt><trkpt lat="41.82943133639035" lon="0.5756917789682219"><ele>283.0</ele><time>2026-03-30T13:20:05Z</time></trkpt><trkpt lat="41.82946561273685" lon="0.575490514373805"><ele>283.0</ele><time>2026-03-30T13:20:06Z</time></trkpt><trkpt lat="41.82951267231711" lon="0.5752971199163457"><ele>283.0</ele><time>2026-03-30T13:20:07Z</time></trkpt><trkpt lat="41.82956848874556" lon="0.57511038391659"><ele>283.25</ele><time>2026-03-30T13:20:08Z</time></trkpt><trkpt lat="41.82962445003287" lon="0.5749356835614602"><ele>283.5</ele><time>2026-03-30T13:20:09Z</time></trkpt><trkpt lat="41.8296807777479" lon="0.5747653794945876"><ele>283.75</ele><time>2026-03-30T13:20:10Z</time></trkpt><trkpt lat="41.82973781480938" lon="0.5745977509182523"><ele>284.0</ele><time>2026-03-30T13:20:11Z</time></trkpt><trkpt lat="41.82979204214983" lon="0.5744296304019814"><ele>284.0</ele><time>2026-03-30T13:20:12Z</time></trkpt><trkpt lat="41.82984320052511" lon="0.5742596761723106"><ele>284.0</ele><time>2026-03-30T13:20:13Z</time></trkpt><trkpt lat="41.829893691003896" lon="0.5740878467574719"><ele>284.0</ele><time>2026-03-30T13:20:14Z</time></trkpt><trkpt lat="41.829946322929715" lon="0.5739150879566991"><ele>284.0</ele><time>2026-03-30T13:20:15Z</time></trkpt><trkpt lat="41.83003063366179" lon="0.5737827242225367"><ele>283.75</ele><time>2026-03-30T13:20:16Z</time></trkpt><trkpt lat="41.83008305419722" lon="0.5736148924253284"><ele>283.5</ele><time>2026-03-30T13:20:17Z</time></trkpt><trkpt lat="41.83012168108369" lon="0.5734352830949865"><ele>283.25</ele><time>2026-03-30T13:20:18Z</time></trkpt><trkpt lat="41.830152134694664" lon="0.5732476672919896"><ele>283.0</ele><time>2026-03-30T13:20:19Z</time></trkpt><trkpt lat="41.830178075384325" lon="0.5730529141243793"><ele>283.0</ele><time>2026-03-30T13:20:20Z</time></trkpt><trkpt lat="41.83020070863226" lon="0.5728573421891185"><ele>283.0</ele><time>2026-03-30T13:20:21Z</time></trkpt><trkpt lat="41.83022052228043" lon="0.5726761052016262"><ele>283.0</ele><time>2026-03-30T13:20:22Z</time></trkpt><trkpt lat="41.830239563407254" lon="0.5724935167477805"><ele>283.0</ele><time>2026-03-30T13:20:23Z</time></trkpt><trkpt lat="41.83025531080931" lon="0.57231228877575"><ele>283.75</ele><time>2026-03-30T13:20:24Z</time></trkpt><trkpt lat="41.83026819184321" lon="0.5721357119370892"><ele>284.5</ele><time>2026-03-30T13:20:25Z</time></trkpt><trkpt lat="41.83027881510952" lon="0.5719604131990982"><ele>285.25</ele><time>2026-03-30T13:20:26Z</time></trkpt><trkpt lat="41.83033265769619" lon="0.5718046741030915"><ele>286.0</ele><time>2026-03-30T13:20:27Z</time></trkpt><trkpt lat="41.83035010287689" lon="0.5716289764334507"><ele>286.5</ele><time>2026-03-30T13:20:28Z</time></trkpt><trkpt lat="41.83036394456634" lon="0.5714478468520511"><ele>287.0</ele><time>2026-03-30T13:20:29Z</time></trkpt><trkpt lat="41.83038113704706" lon="0.5712590625800585"><ele>287.5</ele><time>2026-03-30T13:20:30Z</time></trkpt><trkpt lat="41.83040079983443" lon="0.5710671526598534"><ele>288.0</ele><time>2026-03-30T13:20:31Z</time></trkpt><trkpt lat="41.830433573793336" lon="0.570881082094141"><ele>288.75</ele><time>2026-03-30T13:20:32Z</time></trkpt><trkpt lat="41.830475332153" lon="0.5707011549810406"><ele>289.5</ele><time>2026-03-30T13:20:33Z</time></trkpt><trkpt lat="41.830509667573395" lon="0.5705197459814849"><ele>290.25</ele><time>2026-03-30T13:20:34Z</time></trkpt><trkpt lat="41.83053550987918" lon="0.5703394846662667"><ele>291.0</ele><time>2026-03-30T13:20:35Z</time></trkpt><trkpt lat="41.83055449888692" lon="0.5701618062041391"><ele>291.5</ele><time>2026-03-30T13:20:36Z</time></trkpt><trkpt lat="41.83057289631746" lon="0.5699841498382814"><ele>292.0</ele><time>2026-03-30T13:20:37Z</time></trkpt><trkpt lat="41.83059473449296" lon="0.569808639899423"><ele>292.5</ele><time>2026-03-30T13:20:38Z</time></trkpt><trkpt lat="41.83061732974668" lon="0.5696459230982366"><ele>293.0</ele><time>2026-03-30T13:20:39Z</time></trkpt><trkpt lat="41.830632227435416" lon="0.5694829384749518"><ele>293.4</ele><time>2026-03-30T13:20:40Z</time></trkpt><trkpt lat="41.830650500248865" lon="0.5693387059439893"><ele>293.8</ele><time>2026-03-30T13:20:41Z</time></trkpt><trkpt lat="41.8306653768297" lon="0.5692039195127306"><ele>294.2</ele><time>2026-03-30T13:20:42Z</time></trkpt><trkpt lat="41.83067864931177" lon="0.5690674230762415"><ele>294.6</ele><time>2026-03-30T13:20:43Z</time></trkpt><trkpt lat="41.830693863656386" lon="0.5689389094068372"><ele>295.0</ele><time>2026-03-30T13:20:44Z</time></trkpt><trkpt lat="41.830721637230944" lon="0.5688377357809662"><ele>295.0</ele><time>2026-03-30T13:20:45Z</time></trkpt><trkpt lat="41.83077052877111" lon="0.5687527363505039"><ele>295.0</ele><time>2026-03-30T13:20:46Z</time></trkpt><trkpt lat="41.83081235687195" lon="0.5686663339610227"><ele>295.0</ele><time>2026-03-30T13:20:47Z</time></trkpt><trkpt lat="41.83082385527845" lon="0.5685032362500364"><ele>295.0</ele><time>2026-03-30T13:20:49Z</time></trkpt><trkpt lat="41.83083182315169" lon="0.5683907701728688"><ele>295.0</ele><time>2026-03-30T13:20:50Z</time></trkpt><trkpt lat="41.83083772062186" lon="0.568256077615234"><ele>295.75</ele><time>2026-03-30T13:20:51Z</time></trkpt><trkpt lat="41.83093916087953" lon="0.5681389579765325"><ele>296.5</ele><time>2026-03-30T13:20:52Z</time></trkpt><trkpt lat="41.83103417923538" lon="0.5680156153599106"><ele>297.25</ele><time>2026-03-30T13:20:53Z</time></trkpt><trkpt lat="41.8311306742219" lon="0.5679084695995961"><ele>298.0</ele><time>2026-03-30T13:20:54Z</time></trkpt><trkpt lat="41.831222102155174" lon="0.5678079182425764"><ele>298.75</ele><time>2026-03-30T13:20:55Z</time></trkpt><trkpt lat="41.83131839883271" lon="0.5677142243347034"><ele>299.5</ele><time>2026-03-30T13:20:56Z</time></trkpt><trkpt lat="41.8314279282755" lon="0.5676263279377955"><ele>300.25</ele><time>2026-03-30T13:20:57Z</time></trkpt><trkpt lat="41.83154455585778" lon="0.5675399296703166"><ele>301.0</ele><time>2026-03-30T13:20:58Z</time></trkpt><trkpt lat="41.8316741832083" lon="0.5674618739887997"><ele>301.0</ele><time>2026-03-30T13:20:59Z</time></trkpt><trkpt lat="41.831796670486355" lon="0.567369805941873"><ele>301.0</ele><time>2026-03-30T13:21:00Z</time></trkpt><trkpt lat="41.83192610727044" lon="0.5672774710302035"><ele>301.0</ele><time>2026-03-30T13:21:01Z</time></trkpt><trkpt lat="41.83204845159539" lon="0.5671959008720593"><ele>301.0</ele><time>2026-03-30T13:21:02Z</time></trkpt><trkpt lat="41.83216728175395" lon="0.5671188088817951"><ele>301.40000000000003</ele><time>2026-03-30T13:21:03Z</time></trkpt><trkpt lat="41.832272937597324" lon="0.5670413069531958"><ele>301.8</ele><time>2026-03-30T13:21:04Z</time></trkpt><trkpt lat="41.832366832372955" lon="0.566973490660023"><ele>302.20000000000005</ele><time>2026-03-30T13:21:05Z</time></trkpt><trkpt lat="41.832451945423145" lon="0.5669121001087246"><ele>302.6</ele><time>2026-03-30T13:21:06Z</time></trkpt><trkpt lat="41.83253356236631" lon="0.5668554733670359"><ele>303.0</ele><time>2026-03-30T13:21:07Z</time></trkpt><trkpt lat="41.83261139671832" lon="0.5667989177054766"><ele>303.6</ele><time>2026-03-30T13:21:08Z</time></trkpt><trkpt lat="41.83268066438" lon="0.5667431186777601"><ele>304.20000000000005</ele><time>2026-03-30T13:21:09Z</time></trkpt><trkpt lat="41.832767088693345" lon="0.5666756047447257"><ele>304.8</ele><time>2026-03-30T13:21:10Z</time></trkpt><trkpt lat="41.83287685787303" lon="0.5665953747661131"><ele>305.40000000000003</ele><time>2026-03-30T13:21:11Z</time></trkpt><trkpt lat="41.832988760274084" lon="0.56650364787799"><ele>306.0</ele><time>2026-03-30T13:21:12Z</time></trkpt><trkpt lat="41.833094130682625" lon="0.5664091368753563"><ele>306.0</ele><time>2026-03-30T13:21:13Z</time></trkpt><trkpt lat="41.83319358862481" lon="0.5663018644635176"><ele>306.0</ele><time>2026-03-30T13:21:14Z</time></trkpt><trkpt lat="41.83327192245725" lon="0.5661668601915921"><ele>306.0</ele><time>2026-03-30T13:21:15Z</time></trkpt><trkpt lat="41.833334234280116" lon="0.5660056739078733"><ele>306.0</ele><time>2026-03-30T13:21:16Z</time></trkpt><trkpt lat="41.83338455541069" lon="0.5658050771172854"><ele>306.6666666666667</ele><time>2026-03-30T13:21:17Z</time></trkpt><trkpt lat="41.83343212680456" lon="0.5655936912377407"><ele>307.33333333333337</ele><time>2026-03-30T13:21:18Z</time></trkpt><trkpt lat="41.8334767068391" lon="0.5653601998820894"><ele>308.0</ele><time>2026-03-30T13:21:19Z</time></trkpt><trkpt lat="41.83352516834087" lon="0.565116667722812"><ele>309.0</ele><time>2026-03-30T13:21:20Z</time></trkpt><trkpt lat="41.833575113059766" lon="0.5648864125426091"><ele>310.0</ele><time>2026-03-30T13:21:21Z</time></trkpt><trkpt lat="41.833630162047356" lon="0.5646631810744681"><ele>311.0</ele><time>2026-03-30T13:21:22Z</time></trkpt><trkpt lat="41.83370144633567" lon="0.564446022903833"><ele>311.0</ele><time>2026-03-30T13:21:23Z</time></trkpt><trkpt lat="41.833783466263284" lon="0.5642439394881686"><ele>311.0</ele><time>2026-03-30T13:21:24Z</time></trkpt><trkpt lat="41.83392052001619" lon="0.5640632764558988"><ele>311.0</ele><time>2026-03-30T13:21:25Z</time></trkpt><trkpt lat="41.83405173122081" lon="0.5638487878017157"><ele>310.33333333333337</ele><time>2026-03-30T13:21:26Z</time></trkpt><trkpt lat="41.83419204590768" lon="0.5636516795940195"><ele>309.6666666666667</ele><time>2026-03-30T13:21:27Z</time></trkpt><trkpt lat="41.834315767543444" lon="0.5634441285886129"><ele>309.0</ele><time>2026-03-30T13:21:28Z</time></trkpt><trkpt lat="41.83442542850162" lon="0.5632214918734297"><ele>309.0</ele><time>2026-03-30T13:21:29Z</time></trkpt><trkpt lat="41.83451670548537" lon="0.5629887163176667"><ele>309.0</ele><time>2026-03-30T13:21:30Z</time></trkpt><trkpt lat="41.83458461164481" lon="0.5627403000639396"><ele>309.0</ele><time>2026-03-30T13:21:31Z</time></trkpt><trkpt lat="41.83462760746339" lon="0.5624592621500248"><ele>309.6666666666667</ele><time>2026-03-30T13:21:32Z</time></trkpt><trkpt lat="41.83467041443995" lon="0.5621671135014775"><ele>310.33333333333337</ele><time>2026-03-30T13:21:33Z</time></trkpt><trkpt lat="41.83471888753336" lon="0.5618702600572006"><ele>311.0</ele><time>2026-03-30T13:21:34Z</time></trkpt><trkpt lat="41.834770098575746" lon="0.5615672432224234"><ele>312.5</ele><time>2026-03-30T13:21:35Z</time></trkpt><trkpt lat="41.83482232831338" lon="0.5612605036357673"><ele>314.0</ele><time>2026-03-30T13:21:36Z</time></trkpt><trkpt lat="41.834876453917495" lon="0.5609524083608365"><ele>315.6666666666667</ele><time>2026-03-30T13:21:37Z</time></trkpt><trkpt lat="41.83492821276118" lon="0.5606674989141467"><ele>317.3333333333333</ele><time>2026-03-30T13:21:38Z</time></trkpt><trkpt lat="41.83497685658632" lon="0.5603907260071593"><ele>319.0</ele><time>2026-03-30T13:21:39Z</time></trkpt><trkpt lat="41.83503122117692" lon="0.5601224013570805"><ele>319.66666666666663</ele><time>2026-03-30T13:21:40Z</time></trkpt><trkpt lat="41.83510707195087" lon="0.5598680216564641"><ele>320.3333333333333</ele><time>2026-03-30T13:21:41Z</time></trkpt><trkpt lat="41.83521126074858" lon="0.5596358390796392"><ele>321.0</ele><time>2026-03-30T13:21:42Z</time></trkpt><trkpt lat="41.83537008793507" lon="0.5594669994433449"><ele>322.0</ele><time>2026-03-30T13:21:43Z</time></trkpt><trkpt lat="41.8355211634379" lon="0.5592821265299035"><ele>323.0</ele><time>2026-03-30T13:21:44Z</time></trkpt><trkpt lat="41.83568146892078" lon="0.5590917124674945"><ele>324.0</ele><time>2026-03-30T13:21:45Z</time></trkpt><trkpt lat="41.835858779541475" lon="0.5588995231006351"><ele>326.5</ele><time>2026-03-30T13:21:46Z</time></trkpt><trkpt lat="41.83602887365493" lon="0.5586940831184558"><ele>329.0</ele><time>2026-03-30T13:21:47Z</time></trkpt><trkpt lat="41.83619299566038" lon="0.5584876963371976"><ele>329.0</ele><time>2026-03-30T13:21:48Z</time></trkpt><trkpt lat="41.83634716737318" lon="0.5582892322812171"><ele>329.0</ele><time>2026-03-30T13:21:49Z</time></trkpt><trkpt lat="41.83648291542338" lon="0.5581018003489204"><ele>329.0</ele><time>2026-03-30T13:21:50Z</time></trkpt><trkpt lat="41.836592613189175" lon="0.5579087930182078"><ele>329.6666666666667</ele><time>2026-03-30T13:21:51Z</time></trkpt><trkpt lat="41.836651071600855" lon="0.5576954446495388"><ele>330.3333333333333</ele><time>2026-03-30T13:21:52Z</time></trkpt><trkpt lat="41.83665247250796" lon="0.557456429590688"><ele>331.0</ele><time>2026-03-30T13:21:53Z</time></trkpt><trkpt lat="41.836635385034256" lon="0.5571940497426262"><ele>332.0</ele><time>2026-03-30T13:21:54Z</time></trkpt><trkpt lat="41.83662617073473" lon="0.5569181837452497"><ele>333.0</ele><time>2026-03-30T13:21:55Z</time></trkpt><trkpt lat="41.836624449230484" lon="0.5566326404034271"><ele>334.0</ele><time>2026-03-30T13:21:56Z</time></trkpt><trkpt lat="41.83662529716915" lon="0.5563508146843704"><ele>334.66666666666663</ele><time>2026-03-30T13:21:57Z</time></trkpt><trkpt lat="41.83662329767569" lon="0.5560665087191912"><ele>335.3333333333333</ele><time>2026-03-30T13:21:58Z</time></trkpt><trkpt lat="41.836621651615886" lon="0.5557881989164848"><ele>336.0</ele><time>2026-03-30T13:21:59Z</time></trkpt><trkpt lat="41.83662228331665" lon="0.5555258577559051"><ele>336.6666666666667</ele><time>2026-03-30T13:22:00Z</time></trkpt><trkpt lat="41.83662413973044" lon="0.5552733119538203"><ele>337.33333333333337</ele><time>2026-03-30T13:22:01Z</time></trkpt><trkpt lat="41.836624771185065" lon="0.5550129020942312"><ele>338.0</ele><time>2026-03-30T13:22:02Z</time></trkpt><trkpt lat="41.83662062499918" lon="0.5547343806005621"><ele>339.0</ele><time>2026-03-30T13:22:03Z</time></trkpt><trkpt lat="41.83661948629664" lon="0.5544645013690473"><ele>340.0</ele><time>2026-03-30T13:22:04Z</time></trkpt><trkpt lat="41.83661944468237" lon="0.5541961658651356"><ele>341.0</ele><time>2026-03-30T13:22:05Z</time></trkpt><trkpt lat="41.83661749093809" lon="0.5539299899792149"><ele>342.0</ele><time>2026-03-30T13:22:06Z</time></trkpt><trkpt lat="41.83661669840659" lon="0.5536664538639687"><ele>343.0</ele><time>2026-03-30T13:22:07Z</time></trkpt><trkpt lat="41.83661849924337" lon="0.5534111406122787"><ele>344.0</ele><time>2026-03-30T13:22:08Z</time></trkpt><trkpt lat="41.83661898856146" lon="0.553150571747342"><ele>344.0</ele><time>2026-03-30T13:22:09Z</time></trkpt><trkpt lat="41.83662732497645" lon="0.552912728048303"><ele>344.0</ele><time>2026-03-30T13:22:10Z</time></trkpt><trkpt lat="41.836647103658265" lon="0.5526616124512963"><ele>344.0</ele><time>2026-03-30T13:22:11Z</time></trkpt><trkpt lat="41.83668754171894" lon="0.5524113257826883"><ele>344.6666666666667</ele><time>2026-03-30T13:22:12Z</time></trkpt><trkpt lat="41.836744318060184" lon="0.5521627211421681"><ele>345.3333333333333</ele><time>2026-03-30T13:22:13Z</time></trkpt><trkpt lat="41.836819310222545" lon="0.5519020227003577"><ele>346.0</ele><time>2026-03-30T13:22:14Z</time></trkpt><trkpt lat="41.83690818036999" lon="0.5516360177849228"><ele>343.5</ele><time>2026-03-30T13:22:15Z</time></trkpt><trkpt lat="41.836986972666665" lon="0.5513520203868796"><ele>341.0</ele><time>2026-03-30T13:22:16Z</time></trkpt><trkpt lat="41.8370573992303" lon="0.5510610611677298"><ele>339.0</ele><time>2026-03-30T13:22:17Z</time></trkpt><trkpt lat="41.83712658683498" lon="0.5507682183594851"><ele>337.0</ele><time>2026-03-30T13:22:18Z</time></trkpt><trkpt lat="41.83719581262484" lon="0.5504729326146769"><ele>336.0</ele><time>2026-03-30T13:22:19Z</time></trkpt><trkpt lat="41.83726304692718" lon="0.5501796840258705"><ele>335.0</ele><time>2026-03-30T13:22:20Z</time></trkpt><trkpt lat="41.83733601100757" lon="0.5498698383985778"><ele>335.0</ele><time>2026-03-30T13:22:21Z</time></trkpt><trkpt lat="41.83741264489972" lon="0.549556870464118"><ele>335.0</ele><time>2026-03-30T13:22:22Z</time></trkpt><trkpt lat="41.83749103424038" lon="0.5492308818436485"><ele>334.5</ele><time>2026-03-30T13:22:23Z</time></trkpt><trkpt lat="41.83756918594878" lon="0.5489149616432544"><ele>334.0</ele><time>2026-03-30T13:22:24Z</time></trkpt><trkpt lat="41.837645661823" lon="0.5485943929426641"><ele>336.0</ele><time>2026-03-30T13:22:25Z</time></trkpt><trkpt lat="41.83772185019862" lon="0.5482810297821398"><ele>338.0</ele><time>2026-03-30T13:22:26Z</time></trkpt><trkpt lat="41.83779318628996" lon="0.5479721510736356"><ele>338.0</ele><time>2026-03-30T13:22:27Z</time></trkpt><trkpt lat="41.83786444259474" lon="0.547668013669594"><ele>338.0</ele><time>2026-03-30T13:22:28Z</time></trkpt><trkpt lat="41.83793672288337" lon="0.5473731626044145"><ele>338.0</ele><time>2026-03-30T13:22:29Z</time></trkpt><trkpt lat="41.83800846902331" lon="0.5470692481572785"><ele>338.0</ele><time>2026-03-30T13:22:30Z</time></trkpt><trkpt lat="41.83807903481463" lon="0.5467692135192569"><ele>338.0</ele><time>2026-03-30T13:22:31Z</time></trkpt><trkpt lat="41.838148589215" lon="0.5464654776278008"><ele>338.0</ele><time>2026-03-30T13:22:32Z</time></trkpt><trkpt lat="41.838222334138436" lon="0.5461545431315443"><ele>338.0</ele><time>2026-03-30T13:22:33Z</time></trkpt><trkpt lat="41.83829779716647" lon="0.5458338696871843"><ele>338.0</ele><time>2026-03-30T13:22:34Z</time></trkpt><trkpt lat="41.83837438337365" lon="0.5455091259358119"><ele>337.0</ele><time>2026-03-30T13:22:35Z</time></trkpt><trkpt lat="41.83845609688227" lon="0.545180577324807"><ele>336.0</ele><time>2026-03-30T13:22:36Z</time></trkpt><trkpt lat="41.838536595580756" lon="0.5448543118470656"><ele>338.5</ele><time>2026-03-30T13:22:37Z</time></trkpt><trkpt lat="41.83861357092345" lon="0.5445297396033267"><ele>341.0</ele><time>2026-03-30T13:22:38Z</time></trkpt><trkpt lat="41.83868964036513" lon="0.5442073601440279"><ele>341.0</ele><time>2026-03-30T13:22:39Z</time></trkpt><trkpt lat="41.8387660734862" lon="0.543883050386952"><ele>341.0</ele><time>2026-03-30T13:22:40Z</time></trkpt><trkpt lat="41.8388416388331" lon="0.5435646218842158"><ele>340.0</ele><time>2026-03-30T13:22:41Z</time></trkpt><trkpt lat="41.83892006204644" lon="0.5432456359120935"><ele>339.0</ele><time>2026-03-30T13:22:42Z</time></trkpt><trkpt lat="41.83899519455395" lon="0.5429315785835997"><ele>337.0</ele><time>2026-03-30T13:22:43Z</time></trkpt><trkpt lat="41.83907052967299" lon="0.5426125197340695"><ele>335.0</ele><time>2026-03-30T13:22:44Z</time></trkpt><trkpt lat="41.83914518461487" lon="0.5422917423184488"><ele>334.5</ele><time>2026-03-30T13:22:45Z</time></trkpt><trkpt lat="41.839220850599716" lon="0.5419690990149251"><ele>334.0</ele><time>2026-03-30T13:22:46Z</time></trkpt><trkpt lat="41.839299133856336" lon="0.5416416330959468"><ele>335.5</ele><time>2026-03-30T13:22:47Z</time></trkpt><trkpt lat="41.839377620196444" lon="0.5413181008391886"><ele>337.0</ele><time>2026-03-30T13:22:48Z</time></trkpt><trkpt lat="41.839456548574184" lon="0.5409910730229291"><ele>337.0</ele><time>2026-03-30T13:22:49Z</time></trkpt><trkpt lat="41.839535418949566" lon="0.5406680453491205"><ele>337.0</ele><time>2026-03-30T13:22:50Z</time></trkpt><trkpt lat="41.83961201830731" lon="0.5403450597649792"><ele>337.5</ele><time>2026-03-30T13:22:51Z</time></trkpt><trkpt lat="41.8396887937107" lon="0.5400173961671607"><ele>338.0</ele><time>2026-03-30T13:22:52Z</time></trkpt><trkpt lat="41.839766984313684" lon="0.5396815164592246"><ele>338.0</ele><time>2026-03-30T13:22:53Z</time></trkpt><trkpt lat="41.839846716891316" lon="0.5393487838306608"><ele>338.0</ele><time>2026-03-30T13:22:54Z</time></trkpt><trkpt lat="41.83992656637215" lon="0.5390127545864017"><ele>337.5</ele><time>2026-03-30T13:22:55Z</time></trkpt><trkpt lat="41.840006066070956" lon="0.538685287328351"><ele>337.0</ele><time>2026-03-30T13:22:56Z</time></trkpt><trkpt lat="41.84008565618666" lon="0.5383625931318152"><ele>339.0</ele><time>2026-03-30T13:22:57Z</time></trkpt><trkpt lat="41.84016298567204" lon="0.5380370762995592"><ele>341.0</ele><time>2026-03-30T13:22:58Z</time></trkpt><trkpt lat="41.84023771044354" lon="0.5377182156651663"><ele>341.0</ele><time>2026-03-30T13:22:59Z</time></trkpt><trkpt lat="41.84031104679099" lon="0.5373951589493371"><ele>341.0</ele><time>2026-03-30T13:23:00Z</time></trkpt><trkpt lat="41.8403847978374" lon="0.537086980800678"><ele>340.5</ele><time>2026-03-30T13:23:01Z</time></trkpt><trkpt lat="41.84045870612825" lon="0.5367671880352581"><ele>340.0</ele><time>2026-03-30T13:23:02Z</time></trkpt><trkpt lat="41.840535702685116" lon="0.5364546389593815"><ele>340.0</ele><time>2026-03-30T13:23:03Z</time></trkpt><trkpt lat="41.84061397960812" lon="0.5361435117245437"><ele>340.0</ele><time>2026-03-30T13:23:04Z</time></trkpt><trkpt lat="41.840690120876246" lon="0.5358306689171903"><ele>340.0</ele><time>2026-03-30T13:23:05Z</time></trkpt><trkpt lat="41.84076648457289" lon="0.5355043829648878"><ele>340.0</ele><time>2026-03-30T13:23:06Z</time></trkpt><trkpt lat="41.84084296150358" lon="0.5351805235230697"><ele>339.0</ele><time>2026-03-30T13:23:07Z</time></trkpt><trkpt lat="41.84091821028987" lon="0.5348712171345347"><ele>338.0</ele><time>2026-03-30T13:23:08Z</time></trkpt><trkpt lat="41.84099224479672" lon="0.5345643465180296"><ele>341.5</ele><time>2026-03-30T13:23:09Z</time></trkpt><trkpt lat="41.841064463916965" lon="0.5342534402243819"><ele>345.0</ele><time>2026-03-30T13:23:10Z</time></trkpt><trkpt lat="41.841138345839255" lon="0.5339401157266651"><ele>344.5</ele><time>2026-03-30T13:23:11Z</time></trkpt><trkpt lat="41.84121440034581" lon="0.533620331054873"><ele>344.0</ele><time>2026-03-30T13:23:12Z</time></trkpt><trkpt lat="41.84129026703819" lon="0.5332957388913623"><ele>344.0</ele><time>2026-03-30T13:23:13Z</time></trkpt><trkpt lat="41.84136904430828" lon="0.5329710169777525"><ele>344.0</ele><time>2026-03-30T13:23:14Z</time></trkpt><trkpt lat="41.84144681307045" lon="0.5326519215447588"><ele>342.5</ele><time>2026-03-30T13:23:15Z</time></trkpt><trkpt lat="41.84151946240745" lon="0.5323356493333786"><ele>341.0</ele><time>2026-03-30T13:23:16Z</time></trkpt><trkpt lat="41.8415969630231" lon="0.5320105879088923"><ele>340.5</ele><time>2026-03-30T13:23:17Z</time></trkpt><trkpt lat="41.841674684523426" lon="0.5316927078264866"><ele>340.0</ele><time>2026-03-30T13:23:18Z</time></trkpt><trkpt lat="41.841752209744214" lon="0.5313715959391401"><ele>343.0</ele><time>2026-03-30T13:23:19Z</time></trkpt><trkpt lat="41.841826739949546" lon="0.5310550322914157"><ele>346.0</ele><time>2026-03-30T13:23:20Z</time></trkpt><trkpt lat="41.84190219870949" lon="0.5307355270032266"><ele>346.0</ele><time>2026-03-30T13:23:21Z</time></trkpt><trkpt lat="41.84197589696873" lon="0.5304188315230973"><ele>346.0</ele><time>2026-03-30T13:23:22Z</time></trkpt><trkpt lat="41.842052494035144" lon="0.5300956081054004"><ele>346.5</ele><time>2026-03-30T13:23:23Z</time></trkpt><trkpt lat="41.842131669315805" lon="0.5297708119245552"><ele>347.0</ele><time>2026-03-30T13:23:24Z</time></trkpt><trkpt lat="41.8422128346939" lon="0.5294418983442399"><ele>347.0</ele><time>2026-03-30T13:23:25Z</time></trkpt><trkpt lat="41.84229045005679" lon="0.5291173262028209"><ele>347.0</ele><time>2026-03-30T13:23:26Z</time></trkpt><trkpt lat="41.84236908521292" lon="0.5287877844103943"><ele>346.0</ele><time>2026-03-30T13:23:27Z</time></trkpt><trkpt lat="41.84244321198558" lon="0.5284688696101696"><ele>345.0</ele><time>2026-03-30T13:23:28Z</time></trkpt><trkpt lat="41.84251837617299" lon="0.5281474675445398"><ele>343.5</ele><time>2026-03-30T13:23:29Z</time></trkpt><trkpt lat="41.84259382873248" lon="0.5278284266233413"><ele>342.0</ele><time>2026-03-30T13:23:30Z</time></trkpt><trkpt lat="41.84267022633659" lon="0.5275059517619215"><ele>344.0</ele><time>2026-03-30T13:23:31Z</time></trkpt><trkpt lat="41.84274756063086" lon="0.5271828174792823"><ele>346.0</ele><time>2026-03-30T13:23:32Z</time></trkpt><trkpt lat="41.84282285880077" lon="0.5268651680644993"><ele>346.0</ele><time>2026-03-30T13:23:33Z</time></trkpt><trkpt lat="41.842900739958225" lon="0.5265439883090889"><ele>346.0</ele><time>2026-03-30T13:23:34Z</time></trkpt><trkpt lat="41.842975446161184" lon="0.5262282054278314"><ele>345.0</ele><time>2026-03-30T13:23:35Z</time></trkpt><trkpt lat="41.84304916149949" lon="0.5259214534267876"><ele>344.0</ele><time>2026-03-30T13:23:36Z</time></trkpt><trkpt lat="41.84312412583781" lon="0.525610395710032"><ele>344.5</ele><time>2026-03-30T13:23:37Z</time></trkpt><trkpt lat="41.843197721841676" lon="0.5252989211027926"><ele>345.0</ele><time>2026-03-30T13:23:38Z</time></trkpt><trkpt lat="41.84327375383453" lon="0.5249846686390248"><ele>345.0</ele><time>2026-03-30T13:23:39Z</time></trkpt><trkpt lat="41.843343295541565" lon="0.5246797100081324"><ele>345.0</ele><time>2026-03-30T13:23:40Z</time></trkpt><trkpt lat="41.84341653671622" lon="0.5243685980964604"><ele>347.5</ele><time>2026-03-30T13:23:41Z</time></trkpt><trkpt lat="41.843491592266545" lon="0.5240477745126172"><ele>350.0</ele><time>2026-03-30T13:23:42Z</time></trkpt><trkpt lat="41.843564892095635" lon="0.523736502697822"><ele>350.5</ele><time>2026-03-30T13:23:43Z</time></trkpt><trkpt lat="41.8436399572395" lon="0.5234190805281671"><ele>351.0</ele><time>2026-03-30T13:23:44Z</time></trkpt><trkpt lat="41.84371627849266" lon="0.5231018697558304"><ele>350.5</ele><time>2026-03-30T13:23:45Z</time></trkpt><trkpt lat="41.84379236116753" lon="0.5227893250982117"><ele>350.0</ele><time>2026-03-30T13:23:46Z</time></trkpt><trkpt lat="41.84386602018028" lon="0.5224822455297544"><ele>350.0</ele><time>2026-03-30T13:23:47Z</time></trkpt><trkpt lat="41.84394026759115" lon="0.5221718571494954"><ele>350.0</ele><time>2026-03-30T13:23:48Z</time></trkpt><trkpt lat="41.84401389421317" lon="0.5218701002378205"><ele>349.5</ele><time>2026-03-30T13:23:49Z</time></trkpt><trkpt lat="41.84408629614897" lon="0.521568939278744"><ele>349.0</ele><time>2026-03-30T13:23:50Z</time></trkpt><trkpt lat="41.844156991797526" lon="0.5212742604758369"><ele>348.0</ele><time>2026-03-30T13:23:51Z</time></trkpt><trkpt lat="41.84422733057545" lon="0.5209787881813227"><ele>347.0</ele><time>2026-03-30T13:23:52Z</time></trkpt><trkpt lat="41.84429860196085" lon="0.5206776948652699"><ele>350.0</ele><time>2026-03-30T13:23:53Z</time></trkpt><trkpt lat="41.8443722979125" lon="0.5203681363813782"><ele>353.0</ele><time>2026-03-30T13:23:54Z</time></trkpt><trkpt lat="41.84444578228698" lon="0.5200553371034464"><ele>353.0</ele><time>2026-03-30T13:23:55Z</time></trkpt><trkpt lat="41.84452001183755" lon="0.5197406071271724"><ele>353.0</ele><time>2026-03-30T13:23:56Z</time></trkpt><trkpt lat="41.844594409672915" lon="0.5194299788696034"><ele>352.0</ele><time>2026-03-30T13:23:57Z</time></trkpt><trkpt lat="41.844667782086994" lon="0.519121279098732"><ele>351.0</ele><time>2026-03-30T13:23:58Z</time></trkpt><trkpt lat="41.84474039711764" lon="0.5188131205097175"><ele>351.0</ele><time>2026-03-30T13:23:59Z</time></trkpt><trkpt lat="41.844810841585364" lon="0.5185116888309681"><ele>351.0</ele><time>2026-03-30T13:24:00Z</time></trkpt><trkpt lat="41.84488126977863" lon="0.5182145669543649"><ele>351.0</ele><time>2026-03-30T13:24:01Z</time></trkpt><trkpt lat="41.84495161587692" lon="0.5179222481996465"><ele>351.0</ele><time>2026-03-30T13:24:02Z</time></trkpt><trkpt lat="41.84501227121592" lon="0.5176552257764573"><ele>351.0</ele><time>2026-03-30T13:24:03Z</time></trkpt><trkpt lat="41.845071189242326" lon="0.517393200379611"><ele>351.6666666666667</ele><time>2026-03-30T13:24:04Z</time></trkpt><trkpt lat="41.84513430727854" lon="0.5171185076721152"><ele>352.33333333333337</ele><time>2026-03-30T13:24:05Z</time></trkpt><trkpt lat="41.84520017906075" lon="0.5168270406814246"><ele>353.0</ele><time>2026-03-30T13:24:06Z</time></trkpt><trkpt lat="41.84526950961863" lon="0.5165170010342041"><ele>352.5</ele><time>2026-03-30T13:24:07Z</time></trkpt><trkpt lat="41.84533941535753" lon="0.5161923200971522"><ele>352.0</ele><time>2026-03-30T13:24:08Z</time></trkpt><trkpt lat="41.845416475813906" lon="0.5158553370725236"><ele>352.0</ele><time>2026-03-30T13:24:09Z</time></trkpt><trkpt lat="41.84549486022565" lon="0.5155185433057146"><ele>352.0</ele><time>2026-03-30T13:24:10Z</time></trkpt><trkpt lat="41.84557191023883" lon="0.5151787666755776"><ele>350.0</ele><time>2026-03-30T13:24:11Z</time></trkpt><trkpt lat="41.84564817852297" lon="0.5148372593147459"><ele>348.0</ele><time>2026-03-30T13:24:12Z</time></trkpt><trkpt lat="41.84572748188277" lon="0.5144916728796857"><ele>347.5</ele><time>2026-03-30T13:24:13Z</time></trkpt><trkpt lat="41.84581035469909" lon="0.5141426449490694"><ele>347.0</ele><time>2026-03-30T13:24:14Z</time></trkpt><trkpt lat="41.84589228098841" lon="0.5138039668623682"><ele>349.0</ele><time>2026-03-30T13:24:15Z</time></trkpt><trkpt lat="41.8459841935201" lon="0.513461573061531"><ele>351.0</ele><time>2026-03-30T13:24:16Z</time></trkpt><trkpt lat="41.84608037123871" lon="0.5131193998701509"><ele>349.5</ele><time>2026-03-30T13:24:17Z</time></trkpt><trkpt lat="41.84617472629544" lon="0.512785624709152"><ele>348.0</ele><time>2026-03-30T13:24:18Z</time></trkpt><trkpt lat="41.846263689823566" lon="0.5124410655365486"><ele>348.0</ele><time>2026-03-30T13:24:19Z</time></trkpt><trkpt lat="41.84634213138917" lon="0.512093670517303"><ele>348.0</ele><time>2026-03-30T13:24:20Z</time></trkpt><trkpt lat="41.84642108617739" lon="0.5117428283421771"><ele>347.5</ele><time>2026-03-30T13:24:21Z</time></trkpt><trkpt lat="41.846504652550834" lon="0.5114034719828311"><ele>347.0</ele><time>2026-03-30T13:24:22Z</time></trkpt><trkpt lat="41.846584944428585" lon="0.5110661970642608"><ele>346.5</ele><time>2026-03-30T13:24:23Z</time></trkpt><trkpt lat="41.84666463109042" lon="0.5107247073720468"><ele>346.0</ele><time>2026-03-30T13:24:24Z</time></trkpt><trkpt lat="41.846747136433066" lon="0.5103869476565119"><ele>348.0</ele><time>2026-03-30T13:24:25Z</time></trkpt><trkpt lat="41.84682967996697" lon="0.5100484529697897"><ele>350.0</ele><time>2026-03-30T13:24:26Z</time></trkpt><trkpt lat="41.846909207882554" lon="0.5097093995422379"><ele>348.0</ele><time>2026-03-30T13:24:27Z</time></trkpt><trkpt lat="41.84698865705713" lon="0.5093743670868931"><ele>346.0</ele><time>2026-03-30T13:24:28Z</time></trkpt><trkpt lat="41.84706807545722" lon="0.509039203822267"><ele>346.0</ele><time>2026-03-30T13:24:29Z</time></trkpt><trkpt lat="41.84714637243132" lon="0.5087129298153362"><ele>346.0</ele><time>2026-03-30T13:24:30Z</time></trkpt><trkpt lat="41.847221393269145" lon="0.5083850536912242"><ele>346.0</ele><time>2026-03-30T13:24:31Z</time></trkpt><trkpt lat="41.84729689487946" lon="0.5080599554283021"><ele>346.0</ele><time>2026-03-30T13:24:32Z</time></trkpt><trkpt lat="41.84737753525894" lon="0.5077365040714608"><ele>345.0</ele><time>2026-03-30T13:24:33Z</time></trkpt><trkpt lat="41.84746743528471" lon="0.507417912462447"><ele>344.0</ele><time>2026-03-30T13:24:34Z</time></trkpt><trkpt lat="41.84757377523641" lon="0.5071051033214646"><ele>345.5</ele><time>2026-03-30T13:24:35Z</time></trkpt><trkpt lat="41.84769402402976" lon="0.5068006439772746"><ele>347.0</ele><time>2026-03-30T13:24:36Z</time></trkpt><trkpt lat="41.84783169069441" lon="0.5065110276357243"><ele>348.5</ele><time>2026-03-30T13:24:37Z</time></trkpt><trkpt lat="41.847982186247684" lon="0.5062439022835535"><ele>350.0</ele><time>2026-03-30T13:24:38Z</time></trkpt><trkpt lat="41.84813931821952" lon="0.5059934726405276"><ele>350.0</ele><time>2026-03-30T13:24:39Z</time></trkpt><trkpt lat="41.84830208640281" lon="0.5057582863653084"><ele>350.0</ele><time>2026-03-30T13:24:40Z</time></trkpt><trkpt lat="41.84848209900332" lon="0.5055370217434922"><ele>354.5</ele><time>2026-03-30T13:24:41Z</time></trkpt><trkpt lat="41.84865601623681" lon="0.50532296634322"><ele>359.0</ele><time>2026-03-30T13:24:42Z</time></trkpt><trkpt lat="41.848822979170144" lon="0.5051048023568049"><ele>359.0</ele><time>2026-03-30T13:24:43Z</time></trkpt><trkpt lat="41.84898473765737" lon="0.5048753808705001"><ele>359.0</ele><time>2026-03-30T13:24:44Z</time></trkpt><trkpt lat="41.84914049614322" lon="0.5046379119818571"><ele>357.5</ele><time>2026-03-30T13:24:45Z</time></trkpt><trkpt lat="41.84928615720628" lon="0.5043897064925031"><ele>356.0</ele><time>2026-03-30T13:24:46Z</time></trkpt><trkpt lat="41.84941972331231" lon="0.5041265505112961"><ele>358.5</ele><time>2026-03-30T13:24:47Z</time></trkpt><trkpt lat="41.849543458535514" lon="0.5038488527091712"><ele>361.0</ele><time>2026-03-30T13:24:48Z</time></trkpt><trkpt lat="41.849656111683856" lon="0.5035595359856639"><ele>361.0</ele><time>2026-03-30T13:24:49Z</time></trkpt><trkpt lat="41.84976237537486" lon="0.5032530424419241"><ele>361.0</ele><time>2026-03-30T13:24:50Z</time></trkpt><trkpt lat="41.84986736488664" lon="0.5029366112700708"><ele>360.0</ele><time>2026-03-30T13:24:51Z</time></trkpt><trkpt lat="41.849972166369106" lon="0.5026251868779875"><ele>359.0</ele><time>2026-03-30T13:24:52Z</time></trkpt><trkpt lat="41.85007527899521" lon="0.5023060940092623"><ele>358.5</ele><time>2026-03-30T13:24:53Z</time></trkpt><trkpt lat="41.85017994927318" lon="0.5019828494719522"><ele>358.0</ele><time>2026-03-30T13:24:54Z</time></trkpt><trkpt lat="41.85028575304978" lon="0.5016574759214749"><ele>358.0</ele><time>2026-03-30T13:24:55Z</time></trkpt><trkpt lat="41.85039705913068" lon="0.501327879367456"><ele>358.0</ele><time>2026-03-30T13:24:56Z</time></trkpt><trkpt lat="41.850506177024585" lon="0.5010004635970385"><ele>356.5</ele><time>2026-03-30T13:24:57Z</time></trkpt><trkpt lat="41.85061086110556" lon="0.5006842744085893"><ele>355.0</ele><time>2026-03-30T13:24:58Z</time></trkpt><trkpt lat="41.85071625693928" lon="0.5003660917198955"><ele>353.5</ele><time>2026-03-30T13:24:59Z</time></trkpt><trkpt lat="41.85081881837773" lon="0.5000593305283528"><ele>352.0</ele><time>2026-03-30T13:25:00Z</time></trkpt><trkpt lat="41.85092069720979" lon="0.49974697212587615"><ele>354.0</ele><time>2026-03-30T13:25:01Z</time></trkpt><trkpt lat="41.85102073450848" lon="0.4994358501879449"><ele>356.0</ele><time>2026-03-30T13:25:02Z</time></trkpt><trkpt lat="41.85112190236278" lon="0.49912979285275416"><ele>356.0</ele><time>2026-03-30T13:25:03Z</time></trkpt><trkpt lat="41.85122529663486" lon="0.4988264813053471"><ele>356.0</ele><time>2026-03-30T13:25:04Z</time></trkpt><trkpt lat="41.851331062334566" lon="0.4985252488215836"><ele>356.0</ele><time>2026-03-30T13:25:05Z</time></trkpt><trkpt lat="41.851439992939106" lon="0.4982297105118388"><ele>356.0</ele><time>2026-03-30T13:25:06Z</time></trkpt><trkpt lat="41.851557957699455" lon="0.49793390936485676"><ele>356.0</ele><time>2026-03-30T13:25:07Z</time></trkpt><trkpt lat="41.8516900579214" lon="0.4976368045151909"><ele>356.0</ele><time>2026-03-30T13:25:08Z</time></trkpt><trkpt lat="41.85183319644997" lon="0.49734560828417507"><ele>356.5</ele><time>2026-03-30T13:25:09Z</time></trkpt><trkpt lat="41.85198830816096" lon="0.49706101123780044"><ele>357.0</ele><time>2026-03-30T13:25:10Z</time></trkpt><trkpt lat="41.85213518700167" lon="0.4967834993461842"><ele>357.0</ele><time>2026-03-30T13:25:11Z</time></trkpt><trkpt lat="41.852277962149266" lon="0.4965020582799669"><ele>357.0</ele><time>2026-03-30T13:25:12Z</time></trkpt><trkpt lat="41.852414184314256" lon="0.49622171626442"><ele>357.5</ele><time>2026-03-30T13:25:13Z</time></trkpt><trkpt lat="41.85254461670809" lon="0.49593463248210673"><ele>358.0</ele><time>2026-03-30T13:25:14Z</time></trkpt><trkpt lat="41.85266138806169" lon="0.4956382039641126"><ele>360.0</ele><time>2026-03-30T13:25:15Z</time></trkpt><trkpt lat="41.85276676753243" lon="0.4953365728794794"><ele>362.0</ele><time>2026-03-30T13:25:16Z</time></trkpt><trkpt lat="41.852865685261115" lon="0.4950235214688319"><ele>362.0</ele><time>2026-03-30T13:25:17Z</time></trkpt><trkpt lat="41.85295842647248" lon="0.4947078291389794"><ele>362.0</ele><time>2026-03-30T13:25:18Z</time></trkpt><trkpt lat="41.853042541230884" lon="0.4943923848385505"><ele>361.5</ele><time>2026-03-30T13:25:19Z</time></trkpt><trkpt lat="41.853119363049686" lon="0.4940754866532721"><ele>361.0</ele><time>2026-03-30T13:25:20Z</time></trkpt><trkpt lat="41.85320103562959" lon="0.49375717056553486"><ele>361.0</ele><time>2026-03-30T13:25:21Z</time></trkpt><trkpt lat="41.853284186377635" lon="0.49344282598258943"><ele>361.0</ele><time>2026-03-30T13:25:22Z</time></trkpt><trkpt lat="41.85336775671445" lon="0.49312195910021955"><ele>361.5</ele><time>2026-03-30T13:25:23Z</time></trkpt><trkpt lat="41.853454253911295" lon="0.49279013212663375"><ele>362.0</ele><time>2026-03-30T13:25:24Z</time></trkpt><trkpt lat="41.85354017396006" lon="0.4924593107460566"><ele>361.5</ele><time>2026-03-30T13:25:25Z</time></trkpt><trkpt lat="41.85362651831902" lon="0.4921239194380766"><ele>361.0</ele><time>2026-03-30T13:25:26Z</time></trkpt><trkpt lat="41.8537145294498" lon="0.4917914420920195"><ele>361.0</ele><time>2026-03-30T13:25:27Z</time></trkpt><trkpt lat="41.85380314465909" lon="0.49145647602583403"><ele>361.0</ele><time>2026-03-30T13:25:28Z</time></trkpt><trkpt lat="41.85389177982534" lon="0.49112220404968837"><ele>358.5</ele><time>2026-03-30T13:25:29Z</time></trkpt><trkpt lat="41.85398242500878" lon="0.49078891924147566"><ele>356.0</ele><time>2026-03-30T13:25:30Z</time></trkpt><trkpt lat="41.85407136582139" lon="0.4904648889144555"><ele>356.0</ele><time>2026-03-30T13:25:31Z</time></trkpt><trkpt lat="41.854158231128295" lon="0.4901407579504459"><ele>356.0</ele><time>2026-03-30T13:25:32Z</time></trkpt><trkpt lat="41.85424412950337" lon="0.489817629358629"><ele>359.0</ele><time>2026-03-30T13:25:33Z</time></trkpt><trkpt lat="41.854335590481035" lon="0.48950103787230553"><ele>362.0</ele><time>2026-03-30T13:25:34Z</time></trkpt><trkpt lat="41.854439498831994" lon="0.489193744076624"><ele>362.0</ele><time>2026-03-30T13:25:35Z</time></trkpt><trkpt lat="41.85455879041296" lon="0.48889720064324677"><ele>362.0</ele><time>2026-03-30T13:25:36Z</time></trkpt><trkpt lat="41.854680253076125" lon="0.48860392217536514"><ele>359.5</ele><time>2026-03-30T13:25:37Z</time></trkpt><trkpt lat="41.85480851464607" lon="0.4883119664584098"><ele>357.0</ele><time>2026-03-30T13:25:38Z</time></trkpt><trkpt lat="41.85493871280692" lon="0.4880252425288561"><ele>357.5</ele><time>2026-03-30T13:25:39Z</time></trkpt><trkpt lat="41.85506771844976" lon="0.4877435030492728"><ele>358.0</ele><time>2026-03-30T13:25:40Z</time></trkpt><trkpt lat="41.85519172602123" lon="0.48745359052870696"><ele>358.0</ele><time>2026-03-30T13:25:41Z</time></trkpt><trkpt lat="41.85531278000916" lon="0.4871590903291829"><ele>358.0</ele><time>2026-03-30T13:25:42Z</time></trkpt><trkpt lat="41.85542990100566" lon="0.48687228223717344"><ele>355.0</ele><time>2026-03-30T13:25:43Z</time></trkpt><trkpt lat="41.85554141700599" lon="0.4865771342595234"><ele>352.0</ele><time>2026-03-30T13:25:44Z</time></trkpt><trkpt lat="41.85564669861151" lon="0.48627967568554276"><ele>351.0</ele><time>2026-03-30T13:25:45Z</time></trkpt><trkpt lat="41.85574991636771" lon="0.48596708485412443"><ele>350.0</ele><time>2026-03-30T13:25:46Z</time></trkpt><trkpt lat="41.85584802292602" lon="0.4856555133054652"><ele>350.5</ele><time>2026-03-30T13:25:47Z</time></trkpt><trkpt lat="41.85595128240415" lon="0.485337051820986"><ele>351.0</ele><time>2026-03-30T13:25:48Z</time></trkpt><trkpt lat="41.85604672992396" lon="0.48502626077279015"><ele>353.5</ele><time>2026-03-30T13:25:49Z</time></trkpt><trkpt lat="41.85614155677603" lon="0.4847105885689025"><ele>356.0</ele><time>2026-03-30T13:25:50Z</time></trkpt><trkpt lat="41.85623621369509" lon="0.4844011910624544"><ele>356.5</ele><time>2026-03-30T13:25:51Z</time></trkpt><trkpt lat="41.85633620440845" lon="0.4840987717605265"><ele>357.0</ele><time>2026-03-30T13:25:52Z</time></trkpt><trkpt lat="41.856436467128425" lon="0.48379680040136536"><ele>356.0</ele><time>2026-03-30T13:25:53Z</time></trkpt><trkpt lat="41.8565331372087" lon="0.48349362290369463"><ele>355.0</ele><time>2026-03-30T13:25:54Z</time></trkpt><trkpt lat="41.856629726517674" lon="0.4831913421119065"><ele>355.0</ele><time>2026-03-30T13:25:55Z</time></trkpt><trkpt lat="41.85672790049067" lon="0.48288783346069847"><ele>355.0</ele><time>2026-03-30T13:25:56Z</time></trkpt><trkpt lat="41.856830949668634" lon="0.48256899384276636"><ele>355.0</ele><time>2026-03-30T13:25:57Z</time></trkpt><trkpt lat="41.85693988427269" lon="0.48223846428466444"><ele>355.0</ele><time>2026-03-30T13:25:58Z</time></trkpt><trkpt lat="41.857056907810076" lon="0.4818751709964647"><ele>355.0</ele><time>2026-03-30T13:25:59Z</time></trkpt><trkpt lat="41.857161239346624" lon="0.4815405178779961"><ele>355.0</ele><time>2026-03-30T13:26:00Z</time></trkpt><trkpt lat="41.85725826974086" lon="0.48121126886802695"><ele>354.5</ele><time>2026-03-30T13:26:01Z</time></trkpt><trkpt lat="41.85736361795333" lon="0.4808817179265529"><ele>354.0</ele><time>2026-03-30T13:26:02Z</time></trkpt><trkpt lat="41.857456417226594" lon="0.48055853402067095"><ele>353.5</ele><time>2026-03-30T13:26:03Z</time></trkpt><trkpt lat="41.85754456676538" lon="0.48024125061567446"><ele>353.0</ele><time>2026-03-30T13:26:04Z</time></trkpt><trkpt lat="41.85762044372256" lon="0.47992375532891773"><ele>354.5</ele><time>2026-03-30T13:26:05Z</time></trkpt><trkpt lat="41.85767448928787" lon="0.47959805312206333"><ele>356.0</ele><time>2026-03-30T13:26:06Z</time></trkpt><trkpt lat="41.85771045702423" lon="0.4792697928102574"><ele>356.0</ele><time>2026-03-30T13:26:07Z</time></trkpt><trkpt lat="41.857736813491755" lon="0.47894325112968233"><ele>356.0</ele><time>2026-03-30T13:26:08Z</time></trkpt><trkpt lat="41.8577519998788" lon="0.47861426703242405"><ele>357.0</ele><time>2026-03-30T13:26:09Z</time></trkpt><trkpt lat="41.85774392737998" lon="0.4782881982429734"><ele>358.0</ele><time>2026-03-30T13:26:10Z</time></trkpt><trkpt lat="41.857737887101464" lon="0.4779649330644913"><ele>358.5</ele><time>2026-03-30T13:26:11Z</time></trkpt><trkpt lat="41.85771633200917" lon="0.4776445677637079"><ele>359.0</ele><time>2026-03-30T13:26:12Z</time></trkpt><trkpt lat="41.85768027123452" lon="0.4773240216702674"><ele>359.0</ele><time>2026-03-30T13:26:13Z</time></trkpt><trkpt lat="41.85763066734795" lon="0.47700567275046984"><ele>359.0</ele><time>2026-03-30T13:26:14Z</time></trkpt><trkpt lat="41.857564723842636" lon="0.4766832521360595"><ele>358.5</ele><time>2026-03-30T13:26:15Z</time></trkpt><trkpt lat="41.8574842968526" lon="0.47636483345513225"><ele>358.0</ele><time>2026-03-30T13:26:16Z</time></trkpt><trkpt lat="41.85738914338645" lon="0.4760553431764921"><ele>358.0</ele><time>2026-03-30T13:26:17Z</time></trkpt><trkpt lat="41.85728413596617" lon="0.4757470473022874"><ele>358.0</ele><time>2026-03-30T13:26:18Z</time></trkpt><trkpt lat="41.85718340059293" lon="0.4754396903817422"><ele>362.0</ele><time>2026-03-30T13:26:19Z</time></trkpt><trkpt lat="41.857083087781284" lon="0.4751364718175294"><ele>366.0</ele><time>2026-03-30T13:26:20Z</time></trkpt><trkpt lat="41.85698439897663" lon="0.47483890060061906"><ele>367.5</ele><time>2026-03-30T13:26:21Z</time></trkpt><trkpt lat="41.85688966840048" lon="0.47454416004778294"><ele>369.0</ele><time>2026-03-30T13:26:22Z</time></trkpt><trkpt lat="41.85680838886734" lon="0.4742481990007924"><ele>365.5</ele><time>2026-03-30T13:26:23Z</time></trkpt><trkpt lat="41.85674831040271" lon="0.4739402217432666"><ele>362.0</ele><time>2026-03-30T13:26:24Z</time></trkpt><trkpt lat="41.856716638550935" lon="0.4736284638834886"><ele>362.0</ele><time>2026-03-30T13:26:25Z</time></trkpt><trkpt lat="41.856688557145986" lon="0.47331252006681535"><ele>362.0</ele><time>2026-03-30T13:26:26Z</time></trkpt><trkpt lat="41.8566770250707" lon="0.4729861459772298"><ele>362.5</ele><time>2026-03-30T13:26:27Z</time></trkpt><trkpt lat="41.856682576156786" lon="0.47265226264208127"><ele>363.0</ele><time>2026-03-30T13:26:28Z</time></trkpt><trkpt lat="41.85670311183584" lon="0.47231068453533415"><ele>363.0</ele><time>2026-03-30T13:26:29Z</time></trkpt><trkpt lat="41.856747686871564" lon="0.4719678791254494"><ele>363.0</ele><time>2026-03-30T13:26:30Z</time></trkpt><trkpt lat="41.85680465205627" lon="0.4716217313327265"><ele>364.5</ele><time>2026-03-30T13:26:31Z</time></trkpt><trkpt lat="41.85688269878919" lon="0.4712683017261258"><ele>366.0</ele><time>2026-03-30T13:26:32Z</time></trkpt><trkpt lat="41.85697894374717" lon="0.47091455888744604"><ele>366.0</ele><time>2026-03-30T13:26:33Z</time></trkpt><trkpt lat="41.85707691107203" lon="0.47055223601343876"><ele>366.0</ele><time>2026-03-30T13:26:34Z</time></trkpt><trkpt lat="41.857171422852616" lon="0.4702063227086086"><ele>367.5</ele><time>2026-03-30T13:26:35Z</time></trkpt><trkpt lat="41.85726301475793" lon="0.46986356382777145"><ele>369.0</ele><time>2026-03-30T13:26:36Z</time></trkpt><trkpt lat="41.85734880375559" lon="0.46951841333173044"><ele>369.0</ele><time>2026-03-30T13:26:37Z</time></trkpt><trkpt lat="41.85743571825959" lon="0.4691701550788578"><ele>369.0</ele><time>2026-03-30T13:26:38Z</time></trkpt><trkpt lat="41.85752452263753" lon="0.4688260810071988"><ele>368.0</ele><time>2026-03-30T13:26:39Z</time></trkpt><trkpt lat="41.85761544432576" lon="0.4684855311665259"><ele>367.0</ele><time>2026-03-30T13:26:40Z</time></trkpt><trkpt lat="41.85770182385657" lon="0.4681483834138263"><ele>368.0</ele><time>2026-03-30T13:26:41Z</time></trkpt><trkpt lat="41.85778621694642" lon="0.46781628479351717"><ele>369.0</ele><time>2026-03-30T13:26:42Z</time></trkpt><trkpt lat="41.85787042587583" lon="0.4674834207244258"><ele>369.0</ele><time>2026-03-30T13:26:43Z</time></trkpt><trkpt lat="41.85795822238448" lon="0.4671510808157207"><ele>369.0</ele><time>2026-03-30T13:26:44Z</time></trkpt><trkpt lat="41.85804296923499" lon="0.4668221395936813"><ele>368.0</ele><time>2026-03-30T13:26:45Z</time></trkpt><trkpt lat="41.85812558335253" lon="0.4664856751614871"><ele>367.0</ele><time>2026-03-30T13:26:46Z</time></trkpt><trkpt lat="41.858208529882134" lon="0.46614731911257445"><ele>364.5</ele><time>2026-03-30T13:26:47Z</time></trkpt><trkpt lat="41.858295906645125" lon="0.46580803670925025"><ele>362.0</ele><time>2026-03-30T13:26:48Z</time></trkpt><trkpt lat="41.85838501661601" lon="0.46546236918894524"><ele>366.0</ele><time>2026-03-30T13:26:49Z</time></trkpt><trkpt lat="41.858474288522146" lon="0.46511779077145715"><ele>370.0</ele><time>2026-03-30T13:26:50Z</time></trkpt><trkpt lat="41.85856687933985" lon="0.46477058103951113"><ele>369.5</ele><time>2026-03-30T13:26:51Z</time></trkpt><trkpt lat="41.85865489538832" lon="0.464432564220831"><ele>369.0</ele><time>2026-03-30T13:26:52Z</time></trkpt><trkpt lat="41.858740541128164" lon="0.46408755673947644"><ele>367.0</ele><time>2026-03-30T13:26:53Z</time></trkpt><trkpt lat="41.85882588464355" lon="0.4637411969272647"><ele>365.0</ele><time>2026-03-30T13:26:54Z</time></trkpt><trkpt lat="41.85891305078124" lon="0.4634030059812338"><ele>365.0</ele><time>2026-03-30T13:26:55Z</time></trkpt><trkpt lat="41.859002888411396" lon="0.4630670050631218"><ele>365.0</ele><time>2026-03-30T13:26:56Z</time></trkpt><trkpt lat="41.85909002303465" lon="0.46272832455535196"><ele>364.0</ele><time>2026-03-30T13:26:57Z</time></trkpt><trkpt lat="41.85917417827294" lon="0.46238939177838484"><ele>363.0</ele><time>2026-03-30T13:26:58Z</time></trkpt><trkpt lat="41.859257524067395" lon="0.4620510079111125"><ele>367.0</ele><time>2026-03-30T13:26:59Z</time></trkpt><trkpt lat="41.85933597569758" lon="0.461708000224677"><ele>371.0</ele><time>2026-03-30T13:27:00Z</time></trkpt><trkpt lat="41.859406607141814" lon="0.46136666778965135"><ele>367.5</ele><time>2026-03-30T13:27:01Z</time></trkpt><trkpt lat="41.85945469944193" lon="0.46104492388722274"><ele>364.0</ele><time>2026-03-30T13:27:02Z</time></trkpt><trkpt lat="41.859480223803494" lon="0.4607346512656939"><ele>362.0</ele><time>2026-03-30T13:27:03Z</time></trkpt><trkpt lat="41.85950244017144" lon="0.46042111428587856"><ele>360.0</ele><time>2026-03-30T13:27:04Z</time></trkpt><trkpt lat="41.85950855663175" lon="0.4600970899511379"><ele>360.0</ele><time>2026-03-30T13:27:05Z</time></trkpt><trkpt lat="41.85950972282089" lon="0.45975919135693266"><ele>360.0</ele><time>2026-03-30T13:27:06Z</time></trkpt><trkpt lat="41.859500751705745" lon="0.4594276427000926"><ele>356.5</ele><time>2026-03-30T13:27:07Z</time></trkpt><trkpt lat="41.859479453450355" lon="0.4591020990549888"><ele>353.0</ele><time>2026-03-30T13:27:08Z</time></trkpt><trkpt lat="41.85944767192727" lon="0.4587815040367466"><ele>350.5</ele><time>2026-03-30T13:27:09Z</time></trkpt><trkpt lat="41.85940109179003" lon="0.458466949558099"><ele>348.0</ele><time>2026-03-30T13:27:10Z</time></trkpt><trkpt lat="41.85934226407918" lon="0.4581505171490907"><ele>343.0</ele><time>2026-03-30T13:27:11Z</time></trkpt><trkpt lat="41.85927635504145" lon="0.4578344751555833"><ele>338.0</ele><time>2026-03-30T13:27:12Z</time></trkpt><trkpt lat="41.85920691612337" lon="0.45751199076332494"><ele>338.0</ele><time>2026-03-30T13:27:13Z</time></trkpt><trkpt lat="41.859136208350506" lon="0.4571914465550234"><ele>338.0</ele><time>2026-03-30T13:27:14Z</time></trkpt><trkpt lat="41.85906696263989" lon="0.45686898561383965"><ele>337.0</ele><time>2026-03-30T13:27:15Z</time></trkpt><trkpt lat="41.85900573374417" lon="0.45655469409957966"><ele>336.0</ele><time>2026-03-30T13:27:16Z</time></trkpt><trkpt lat="41.85896047598796" lon="0.45625024711312906"><ele>335.0</ele><time>2026-03-30T13:27:17Z</time></trkpt><trkpt lat="41.858929574781776" lon="0.4559342716905976"><ele>334.0</ele><time>2026-03-30T13:27:18Z</time></trkpt><trkpt lat="41.85891151965386" lon="0.4555989508801938"><ele>333.5</ele><time>2026-03-30T13:27:19Z</time></trkpt><trkpt lat="41.858906129225694" lon="0.45526010578017817"><ele>333.0</ele><time>2026-03-30T13:27:20Z</time></trkpt><trkpt lat="41.85890779260974" lon="0.4549205796899743"><ele>334.5</ele><time>2026-03-30T13:27:21Z</time></trkpt><trkpt lat="41.858917228313345" lon="0.4545758971766418"><ele>336.0</ele><time>2026-03-30T13:27:22Z</time></trkpt><trkpt lat="41.85894716148681" lon="0.45422898721966015"><ele>336.0</ele><time>2026-03-30T13:27:23Z</time></trkpt><trkpt lat="41.8589817531706" lon="0.4538814391042465"><ele>336.0</ele><time>2026-03-30T13:27:24Z</time></trkpt><trkpt lat="41.8590239247469" lon="0.45353379674414296"><ele>335.0</ele><time>2026-03-30T13:27:25Z</time></trkpt><trkpt lat="41.85907034147828" lon="0.4531805258988246"><ele>334.0</ele><time>2026-03-30T13:27:26Z</time></trkpt><trkpt lat="41.85912018411682" lon="0.452834433898303"><ele>334.0</ele><time>2026-03-30T13:27:27Z</time></trkpt><trkpt lat="41.85917650756844" lon="0.452472437085256"><ele>334.0</ele><time>2026-03-30T13:27:28Z</time></trkpt><trkpt lat="41.859230927832634" lon="0.452098879589463"><ele>334.5</ele><time>2026-03-30T13:27:29Z</time></trkpt><trkpt lat="41.859287263874236" lon="0.45174066682378305"><ele>335.0</ele><time>2026-03-30T13:27:30Z</time></trkpt><trkpt lat="41.859349799252705" lon="0.451392356232169"><ele>340.0</ele><time>2026-03-30T13:27:31Z</time></trkpt><trkpt lat="41.85941680093429" lon="0.4510441018279589"><ele>345.0</ele><time>2026-03-30T13:27:32Z</time></trkpt><trkpt lat="41.859494864630605" lon="0.4506976703397065"><ele>348.0</ele><time>2026-03-30T13:27:33Z</time></trkpt><trkpt lat="41.859585296232424" lon="0.45036577169297853"><ele>351.0</ele><time>2026-03-30T13:27:34Z</time></trkpt><trkpt lat="41.859687636071094" lon="0.45003554286192593"><ele>351.0</ele><time>2026-03-30T13:27:35Z</time></trkpt><trkpt lat="41.85979378683721" lon="0.44971668211426963"><ele>351.0</ele><time>2026-03-30T13:27:36Z</time></trkpt><trkpt lat="41.85989797402563" lon="0.4493995900508064"><ele>351.0</ele><time>2026-03-30T13:27:37Z</time></trkpt><trkpt lat="41.859998034994334" lon="0.44908582493382204"><ele>351.0</ele><time>2026-03-30T13:27:38Z</time></trkpt><trkpt lat="41.860093122824324" lon="0.44876084387358983"><ele>355.5</ele><time>2026-03-30T13:27:39Z</time></trkpt><trkpt lat="41.860178333779295" lon="0.4484370825388792"><ele>360.0</ele><time>2026-03-30T13:27:40Z</time></trkpt><trkpt lat="41.86025397523077" lon="0.448094177318882"><ele>361.0</ele><time>2026-03-30T13:27:41Z</time></trkpt><trkpt lat="41.860322099839834" lon="0.44774630412738625"><ele>362.0</ele><time>2026-03-30T13:27:42Z</time></trkpt><trkpt lat="41.86038533754418" lon="0.4473871318905417"><ele>363.0</ele><time>2026-03-30T13:27:43Z</time></trkpt><trkpt lat="41.860448909327644" lon="0.4470295818557733"><ele>364.0</ele><time>2026-03-30T13:27:44Z</time></trkpt><trkpt lat="41.860509413727314" lon="0.44668461087290456"><ele>364.0</ele><time>2026-03-30T13:27:45Z</time></trkpt><trkpt lat="41.86057441786061" lon="0.44633687458166443"><ele>364.0</ele><time>2026-03-30T13:27:46Z</time></trkpt><trkpt lat="41.86063908460912" lon="0.4459941763232594"><ele>364.0</ele><time>2026-03-30T13:27:47Z</time></trkpt><trkpt lat="41.86070711007139" lon="0.44564923545938795"><ele>364.0</ele><time>2026-03-30T13:27:48Z</time></trkpt><trkpt lat="41.860778919233496" lon="0.4453035640279028"><ele>364.0</ele><time>2026-03-30T13:27:49Z</time></trkpt><trkpt lat="41.86085044608999" lon="0.44496131838295533"><ele>364.0</ele><time>2026-03-30T13:27:50Z</time></trkpt><trkpt lat="41.86092234828045" lon="0.444617889186476"><ele>366.5</ele><time>2026-03-30T13:27:51Z</time></trkpt><trkpt lat="41.860995505266" lon="0.4442767583135753"><ele>369.0</ele><time>2026-03-30T13:27:52Z</time></trkpt><trkpt lat="41.86107066281501" lon="0.4439345659104047"><ele>369.0</ele><time>2026-03-30T13:27:53Z</time></trkpt><trkpt lat="41.86114490709368" lon="0.44359283857730925"><ele>369.0</ele><time>2026-03-30T13:27:54Z</time></trkpt><trkpt lat="41.86122189896965" lon="0.44325295880476334"><ele>368.0</ele><time>2026-03-30T13:27:55Z</time></trkpt><trkpt lat="41.86130113750732" lon="0.4429221222296092"><ele>367.0</ele><time>2026-03-30T13:27:56Z</time></trkpt><trkpt lat="41.861380740843956" lon="0.4425872180211517"><ele>367.0</ele><time>2026-03-30T13:27:57Z</time></trkpt><trkpt lat="41.86145750216915" lon="0.44224606992377996"><ele>367.0</ele><time>2026-03-30T13:27:58Z</time></trkpt><trkpt lat="41.86153232450288" lon="0.44190017566232276"><ele>367.0</ele><time>2026-03-30T13:27:59Z</time></trkpt><trkpt lat="41.86161146322808" lon="0.4415605240883616"><ele>367.0</ele><time>2026-03-30T13:28:00Z</time></trkpt><trkpt lat="41.86168941380053" lon="0.4412247692650597"><ele>367.0</ele><time>2026-03-30T13:28:01Z</time></trkpt><trkpt lat="41.861762246207114" lon="0.4408673553362694"><ele>367.0</ele><time>2026-03-30T13:28:02Z</time></trkpt><trkpt lat="41.861840501886306" lon="0.4405334485036964"><ele>368.5</ele><time>2026-03-30T13:28:03Z</time></trkpt><trkpt lat="41.8619119776246" lon="0.4401879021958638"><ele>370.0</ele><time>2026-03-30T13:28:04Z</time></trkpt><trkpt lat="41.86199245180369" lon="0.4398586081863142"><ele>369.5</ele><time>2026-03-30T13:28:05Z</time></trkpt><trkpt lat="41.86207407865684" lon="0.4395398305493867"><ele>369.0</ele><time>2026-03-30T13:28:06Z</time></trkpt><trkpt lat="41.862164767152926" lon="0.4392162478880937"><ele>369.0</ele><time>2026-03-30T13:28:07Z</time></trkpt><trkpt lat="41.86226276544951" lon="0.43889625922475833"><ele>369.0</ele><time>2026-03-30T13:28:08Z</time></trkpt><trkpt lat="41.862377400947146" lon="0.43859595391036044"><ele>369.0</ele><time>2026-03-30T13:28:09Z</time></trkpt><trkpt lat="41.8625062909385" lon="0.43830562456443106"><ele>369.0</ele><time>2026-03-30T13:28:10Z</time></trkpt><trkpt lat="41.86264807023687" lon="0.43802649320399445"><ele>365.5</ele><time>2026-03-30T13:28:11Z</time></trkpt><trkpt lat="41.86279746897751" lon="0.4377587776897164"><ele>362.0</ele><time>2026-03-30T13:28:12Z</time></trkpt><trkpt lat="41.86295847705203" lon="0.43750391698920543"><ele>362.0</ele><time>2026-03-30T13:28:13Z</time></trkpt><trkpt lat="41.86313185369723" lon="0.43725269324595784"><ele>362.0</ele><time>2026-03-30T13:28:14Z</time></trkpt><trkpt lat="41.86331401150955" lon="0.4370105721004784"><ele>359.5</ele><time>2026-03-30T13:28:15Z</time></trkpt><trkpt lat="41.86350470360944" lon="0.43678601349941903"><ele>357.0</ele><time>2026-03-30T13:28:16Z</time></trkpt><trkpt lat="41.8637028006712" lon="0.4365791423535046"><ele>357.0</ele><time>2026-03-30T13:28:17Z</time></trkpt><trkpt lat="41.86390318895722" lon="0.4363760715077375"><ele>357.0</ele><time>2026-03-30T13:28:18Z</time></trkpt><trkpt lat="41.864106099379576" lon="0.4361827885857079"><ele>361.3333333333333</ele><time>2026-03-30T13:28:19Z</time></trkpt><trkpt lat="41.86429588436504" lon="0.43600132249780477"><ele>365.66666666666663</ele><time>2026-03-30T13:28:20Z</time></trkpt><trkpt lat="41.86445678964769" lon="0.4358162516359516"><ele>370.0</ele><time>2026-03-30T13:28:21Z</time></trkpt><trkpt lat="41.86459796828352" lon="0.43559635435698657"><ele>367.0</ele><time>2026-03-30T13:28:22Z</time></trkpt><trkpt lat="41.864740690278026" lon="0.43536232391856095"><ele>364.0</ele><time>2026-03-30T13:28:23Z</time></trkpt><trkpt lat="41.86485559190391" lon="0.4351108860293829"><ele>361.0</ele><time>2026-03-30T13:28:24Z</time></trkpt><trkpt lat="41.864953394684335" lon="0.434841721839652"><ele>356.5</ele><time>2026-03-30T13:28:25Z</time></trkpt><trkpt lat="41.86503715427852" lon="0.4345510316611608"><ele>352.0</ele><time>2026-03-30T13:28:26Z</time></trkpt><trkpt lat="41.86510760056253" lon="0.4342401635168042"><ele>352.0</ele><time>2026-03-30T13:28:27Z</time></trkpt><trkpt lat="41.865152690729104" lon="0.43391637865096433"><ele>352.0</ele><time>2026-03-30T13:28:28Z</time></trkpt><trkpt lat="41.86516464873308" lon="0.4335920860158135"><ele>352.0</ele><time>2026-03-30T13:28:29Z</time></trkpt><trkpt lat="41.8651523613875" lon="0.4332490700536701"><ele>352.0</ele><time>2026-03-30T13:28:30Z</time></trkpt><trkpt lat="41.86514057494228" lon="0.43289817587051443"><ele>354.0</ele><time>2026-03-30T13:28:31Z</time></trkpt><trkpt lat="41.865105178692815" lon="0.43255354640195315"><ele>356.0</ele><time>2026-03-30T13:28:32Z</time></trkpt><trkpt lat="41.86507663425998" lon="0.43222197794640566"><ele>360.5</ele><time>2026-03-30T13:28:33Z</time></trkpt><trkpt lat="41.8650453325894" lon="0.4318999347774505"><ele>365.0</ele><time>2026-03-30T13:28:34Z</time></trkpt><trkpt lat="41.86501162015445" lon="0.43159084639901407"><ele>368.0</ele><time>2026-03-30T13:28:35Z</time></trkpt><trkpt lat="41.86497307999462" lon="0.4312862616363838"><ele>371.0</ele><time>2026-03-30T13:28:36Z</time></trkpt><trkpt lat="41.86494188212808" lon="0.43099111272612256"><ele>371.0</ele><time>2026-03-30T13:28:37Z</time></trkpt><trkpt lat="41.86491437567065" lon="0.4306851772026653"><ele>371.0</ele><time>2026-03-30T13:28:38Z</time></trkpt><trkpt lat="41.86489279174881" lon="0.4303763048418022"><ele>370.0</ele><time>2026-03-30T13:28:39Z</time></trkpt><trkpt lat="41.864877328059826" lon="0.4300721689743272"><ele>369.0</ele><time>2026-03-30T13:28:40Z</time></trkpt><trkpt lat="41.864872899497556" lon="0.42977002962364924"><ele>367.5</ele><time>2026-03-30T13:28:41Z</time></trkpt><trkpt lat="41.86488808224247" lon="0.4294620214132645"><ele>366.0</ele><time>2026-03-30T13:28:42Z</time></trkpt><trkpt lat="41.86492962463327" lon="0.42915284300073847"><ele>366.0</ele><time>2026-03-30T13:28:43Z</time></trkpt><trkpt lat="41.86500257898297" lon="0.428865184942804"><ele>366.0</ele><time>2026-03-30T13:28:44Z</time></trkpt><trkpt lat="41.865096789198226" lon="0.42859277721756456"><ele>364.6666666666667</ele><time>2026-03-30T13:28:45Z</time></trkpt><trkpt lat="41.865199184602915" lon="0.4283380029872995"><ele>363.33333333333337</ele><time>2026-03-30T13:28:46Z</time></trkpt><trkpt lat="41.86530869842034" lon="0.428088141023583"><ele>362.0</ele><time>2026-03-30T13:28:47Z</time></trkpt><trkpt lat="41.86542207198449" lon="0.4278454600091612"><ele>362.0</ele><time>2026-03-30T13:28:48Z</time></trkpt><trkpt lat="41.86553470389871" lon="0.42760026743044566"><ele>362.0</ele><time>2026-03-30T13:28:49Z</time></trkpt><trkpt lat="41.865645917175684" lon="0.42734841022370557"><ele>362.0</ele><time>2026-03-30T13:28:50Z</time></trkpt><trkpt lat="41.865757729050934" lon="0.4270928034810233"><ele>360.0</ele><time>2026-03-30T13:28:51Z</time></trkpt><trkpt lat="41.865867237459845" lon="0.4268488787817265"><ele>358.0</ele><time>2026-03-30T13:28:52Z</time></trkpt><trkpt lat="41.86597152342445" lon="0.42661227607741736"><ele>356.0</ele><time>2026-03-30T13:28:53Z</time></trkpt><trkpt lat="41.866078662324796" lon="0.42637187473866206"><ele>360.33333333333337</ele><time>2026-03-30T13:28:54Z</time></trkpt><trkpt lat="41.8661849467566" lon="0.42613948694666637"><ele>364.6666666666667</ele><time>2026-03-30T13:28:55Z</time></trkpt><trkpt lat="41.86628159921135" lon="0.4259128982885662"><ele>369.0</ele><time>2026-03-30T13:28:56Z</time></trkpt><trkpt lat="41.86635999891634" lon="0.4256945217531769"><ele>367.3333333333333</ele><time>2026-03-30T13:28:57Z</time></trkpt><trkpt lat="41.86641226895593" lon="0.42547807067569293"><ele>365.66666666666663</ele><time>2026-03-30T13:28:58Z</time></trkpt><trkpt lat="41.866439603384656" lon="0.4252468477619884"><ele>364.0</ele><time>2026-03-30T13:28:59Z</time></trkpt><trkpt lat="41.86642152656143" lon="0.4250110633497961"><ele>364.0</ele><time>2026-03-30T13:29:00Z</time></trkpt><trkpt lat="41.86638108905787" lon="0.4247732746723817"><ele>364.0</ele><time>2026-03-30T13:29:01Z</time></trkpt><trkpt lat="41.86630734996071" lon="0.42454870448513854"><ele>364.0</ele><time>2026-03-30T13:29:02Z</time></trkpt><trkpt lat="41.86620903162455" lon="0.42435961006541306"><ele>362.66666666666663</ele><time>2026-03-30T13:29:03Z</time></trkpt><trkpt lat="41.86608064476082" lon="0.4242025858074191"><ele>361.3333333333333</ele><time>2026-03-30T13:29:04Z</time></trkpt><trkpt lat="41.86593557898083" lon="0.42404550382460826"><ele>360.0</ele><time>2026-03-30T13:29:05Z</time></trkpt><trkpt lat="41.86578654857598" lon="0.4238946366814248"><ele>358.3333333333333</ele><time>2026-03-30T13:29:06Z</time></trkpt><trkpt lat="41.8656309934999" lon="0.423734923836631"><ele>356.66666666666663</ele><time>2026-03-30T13:29:07Z</time></trkpt><trkpt lat="41.86547686576778" lon="0.42358615344854234"><ele>355.0</ele><time>2026-03-30T13:29:08Z</time></trkpt><trkpt lat="41.86532975888047" lon="0.42344239513837023"><ele>355.0</ele><time>2026-03-30T13:29:09Z</time></trkpt><trkpt lat="41.86518908055647" lon="0.423290370680588"><ele>355.0</ele><time>2026-03-30T13:29:10Z</time></trkpt><trkpt lat="41.86502346493866" lon="0.4231457897977804"><ele>355.0</ele><time>2026-03-30T13:29:11Z</time></trkpt><trkpt lat="41.864856947749466" lon="0.4229817163279424"><ele>359.0</ele><time>2026-03-30T13:29:12Z</time></trkpt><trkpt lat="41.86470203887862" lon="0.4228129237767391"><ele>363.0</ele><time>2026-03-30T13:29:13Z</time></trkpt><trkpt lat="41.864560089093224" lon="0.4226682064115605"><ele>367.0</ele><time>2026-03-30T13:29:14Z</time></trkpt><trkpt lat="41.86442989439316" lon="0.4225415864933726"><ele>367.0</ele><time>2026-03-30T13:29:15Z</time></trkpt><trkpt lat="41.86431583499293" lon="0.42241157885726377"><ele>367.0</ele><time>2026-03-30T13:29:16Z</time></trkpt><trkpt lat="41.8642041986659" lon="0.4222729808737602"><ele>367.0</ele><time>2026-03-30T13:29:17Z</time></trkpt><trkpt lat="41.86409719031504" lon="0.4221037281920195"><ele>368.66666666666663</ele><time>2026-03-30T13:29:18Z</time></trkpt><trkpt lat="41.86401284464295" lon="0.4219184980724847"><ele>370.3333333333333</ele><time>2026-03-30T13:29:19Z</time></trkpt><trkpt lat="41.863948654814415" lon="0.42172273454092424"><ele>372.0</ele><time>2026-03-30T13:29:20Z</time></trkpt><trkpt lat="41.863907164173284" lon="0.42153573693238405"><ele>372.0</ele><time>2026-03-30T13:29:21Z</time></trkpt><trkpt lat="41.86388097396881" lon="0.42135237500355077"><ele>372.0</ele><time>2026-03-30T13:29:22Z</time></trkpt><trkpt lat="41.86385492884738" lon="0.4211402948575839"><ele>372.0</ele><time>2026-03-30T13:29:23Z</time></trkpt><trkpt lat="41.863833561534804" lon="0.4209014424780523"><ele>372.0</ele><time>2026-03-30T13:29:24Z</time></trkpt><trkpt lat="41.8638289090975" lon="0.42066121602681433"><ele>372.0</ele><time>2026-03-30T13:29:25Z</time></trkpt><trkpt lat="41.86384548106454" lon="0.4204489994377518"><ele>372.0</ele><time>2026-03-30T13:29:26Z</time></trkpt><trkpt lat="41.863870846659246" lon="0.4202521515695946"><ele>371.3333333333333</ele><time>2026-03-30T13:29:27Z</time></trkpt><trkpt lat="41.86389414422355" lon="0.42005776961250013"><ele>370.66666666666663</ele><time>2026-03-30T13:29:28Z</time></trkpt><trkpt lat="41.86391528361956" lon="0.41985521830614025"><ele>370.0</ele><time>2026-03-30T13:29:29Z</time></trkpt><trkpt lat="41.86394813084928" lon="0.41965027960356843"><ele>369.5</ele><time>2026-03-30T13:29:30Z</time></trkpt><trkpt lat="41.8639728455688" lon="0.41945959870997185"><ele>369.0</ele><time>2026-03-30T13:29:31Z</time></trkpt><trkpt lat="41.864000844368974" lon="0.41926548205621994"><ele>368.5</ele><time>2026-03-30T13:29:32Z</time></trkpt><trkpt lat="41.86402148554939" lon="0.4190633201328852"><ele>368.0</ele><time>2026-03-30T13:29:33Z</time></trkpt><trkpt lat="41.86404810151164" lon="0.41884369038619457"><ele>367.6666666666667</ele><time>2026-03-30T13:29:34Z</time></trkpt><trkpt lat="41.86407359534187" lon="0.41862120138753095"><ele>367.3333333333333</ele><time>2026-03-30T13:29:35Z</time></trkpt><trkpt lat="41.86409779142595" lon="0.41839203602771813"><ele>367.0</ele><time>2026-03-30T13:29:36Z</time></trkpt><trkpt lat="41.86412613167582" lon="0.4181658251629155"><ele>367.3333333333333</ele><time>2026-03-30T13:29:37Z</time></trkpt><trkpt lat="41.86416070220659" lon="0.4179343634756155"><ele>367.6666666666667</ele><time>2026-03-30T13:29:38Z</time></trkpt><trkpt lat="41.86419419648114" lon="0.41770092447099"><ele>368.0</ele><time>2026-03-30T13:29:39Z</time></trkpt><trkpt lat="41.86422357176694" lon="0.4174605883682992"><ele>368.0</ele><time>2026-03-30T13:29:40Z</time></trkpt><trkpt lat="41.86424492335218" lon="0.41722103792012905"><ele>368.0</ele><time>2026-03-30T13:29:41Z</time></trkpt><trkpt lat="41.86425795692513" lon="0.4169737242462732"><ele>368.0</ele><time>2026-03-30T13:29:42Z</time></trkpt><trkpt lat="41.864253337854656" lon="0.4167271660969281"><ele>366.6666666666667</ele><time>2026-03-30T13:29:43Z</time></trkpt><trkpt lat="41.86423244530699" lon="0.41648319362912517"><ele>365.3333333333333</ele><time>2026-03-30T13:29:44Z</time></trkpt><trkpt lat="41.86418840972663" lon="0.41624090827154026"><ele>364.0</ele><time>2026-03-30T13:29:45Z</time></trkpt><trkpt lat="41.86412694894594" lon="0.41599158627316746"><ele>363.0</ele><time>2026-03-30T13:29:46Z</time></trkpt><trkpt lat="41.86406282057586" lon="0.4157092980131475"><ele>362.0</ele><time>2026-03-30T13:29:47Z</time></trkpt><trkpt lat="41.864000717312344" lon="0.415414813062588"><ele>361.0</ele><time>2026-03-30T13:29:48Z</time></trkpt><trkpt lat="41.8639286661316" lon="0.41512199556862756"><ele>360.3333333333333</ele><time>2026-03-30T13:29:49Z</time></trkpt><trkpt lat="41.863855554761756" lon="0.41483913871194306"><ele>359.6666666666667</ele><time>2026-03-30T13:29:50Z</time></trkpt><trkpt lat="41.86378369806825" lon="0.41455154924928905"><ele>359.0</ele><time>2026-03-30T13:29:51Z</time></trkpt><trkpt lat="41.863713612997635" lon="0.4142592339259628"><ele>356.5</ele><time>2026-03-30T13:29:52Z</time></trkpt><trkpt lat="41.8636386844255" lon="0.4139586429940771"><ele>354.0</ele><time>2026-03-30T13:29:53Z</time></trkpt><trkpt lat="41.8635614367624" lon="0.41364560115094423"><ele>353.0</ele><time>2026-03-30T13:29:54Z</time></trkpt><trkpt lat="41.86348514607238" lon="0.41332927636410527"><ele>352.0</ele><time>2026-03-30T13:29:55Z</time></trkpt><trkpt lat="41.86341093326296" lon="0.41301904939167916"><ele>347.5</ele><time>2026-03-30T13:29:56Z</time></trkpt><trkpt lat="41.863338545702284" lon="0.41271925667457654"><ele>343.0</ele><time>2026-03-30T13:29:57Z</time></trkpt><trkpt lat="41.86326391402388" lon="0.4124176702796809"><ele>342.0</ele><time>2026-03-30T13:29:58Z</time></trkpt><trkpt lat="41.86318798074956" lon="0.4121071640306967"><ele>341.0</ele><time>2026-03-30T13:29:59Z</time></trkpt><trkpt lat="41.863112876591785" lon="0.41179543253825485"><ele>341.0</ele><time>2026-03-30T13:30:00Z</time></trkpt><trkpt lat="41.863031468848135" lon="0.4114679851929633"><ele>341.0</ele><time>2026-03-30T13:30:01Z</time></trkpt><trkpt lat="41.86294755631414" lon="0.41113397682416686"><ele>342.5</ele><time>2026-03-30T13:30:02Z</time></trkpt><trkpt lat="41.86286960670163" lon="0.4108066013578086"><ele>344.0</ele><time>2026-03-30T13:30:03Z</time></trkpt><trkpt lat="41.86279733649775" lon="0.4104917243618586"><ele>346.0</ele><time>2026-03-30T13:30:04Z</time></trkpt><trkpt lat="41.86272457483613" lon="0.4101844714315901"><ele>348.0</ele><time>2026-03-30T13:30:05Z</time></trkpt><trkpt lat="41.86265108988259" lon="0.40987847495968444"><ele>344.5</ele><time>2026-03-30T13:30:06Z</time></trkpt><trkpt lat="41.86257411486913" lon="0.40956833024914246"><ele>341.0</ele><time>2026-03-30T13:30:07Z</time></trkpt><trkpt lat="41.86249284599118" lon="0.40925380213779716"><ele>341.0</ele><time>2026-03-30T13:30:08Z</time></trkpt><trkpt lat="41.86241168344545" lon="0.40892411116631794"><ele>341.0</ele><time>2026-03-30T13:30:09Z</time></trkpt><trkpt lat="41.86233272849648" lon="0.40859463213911645"><ele>340.0</ele><time>2026-03-30T13:30:10Z</time></trkpt><trkpt lat="41.862255647477944" lon="0.40827018603366405"><ele>339.0</ele><time>2026-03-30T13:30:11Z</time></trkpt><trkpt lat="41.86217908264115" lon="0.40794764052360455"><ele>338.0</ele><time>2026-03-30T13:30:12Z</time></trkpt><trkpt lat="41.862101899876286" lon="0.40763082582244564"><ele>337.0</ele><time>2026-03-30T13:30:13Z</time></trkpt><trkpt lat="41.86202589935026" lon="0.4073197753739559"><ele>335.0</ele><time>2026-03-30T13:30:14Z</time></trkpt><trkpt lat="41.861951382212425" lon="0.407012274257493"><ele>333.0</ele><time>2026-03-30T13:30:15Z</time></trkpt><trkpt lat="41.86187543001923" lon="0.4067039198481935"><ele>333.0</ele><time>2026-03-30T13:30:16Z</time></trkpt><trkpt lat="41.861793958974545" lon="0.406378984517995"><ele>333.0</ele><time>2026-03-30T13:30:17Z</time></trkpt><trkpt lat="41.86169800379744" lon="0.4060287195532361"><ele>332.5</ele><time>2026-03-30T13:30:18Z</time></trkpt><trkpt lat="41.86159421847621" lon="0.40566534311280816"><ele>332.0</ele><time>2026-03-30T13:30:19Z</time></trkpt><trkpt lat="41.86150963895302" lon="0.40526790826038"><ele>332.0</ele><time>2026-03-30T13:30:20Z</time></trkpt><trkpt lat="41.861404210649866" lon="0.40487681693999195"><ele>332.0</ele><time>2026-03-30T13:30:21Z</time></trkpt><trkpt lat="41.8613389051991" lon="0.40449782710015836"><ele>334.0</ele><time>2026-03-30T13:30:22Z</time></trkpt><trkpt lat="41.86126465041981" lon="0.4041390143671788"><ele>336.0</ele><time>2026-03-30T13:30:23Z</time></trkpt><trkpt lat="41.86117578829925" lon="0.403802370889692"><ele>340.0</ele><time>2026-03-30T13:30:24Z</time></trkpt><trkpt lat="41.86108714143557" lon="0.403468657918791"><ele>344.0</ele><time>2026-03-30T13:30:25Z</time></trkpt><trkpt lat="41.86100774963555" lon="0.403131758479936"><ele>342.5</ele><time>2026-03-30T13:30:26Z</time></trkpt><trkpt lat="41.86092995170149" lon="0.4027999297429961"><ele>341.0</ele><time>2026-03-30T13:30:27Z</time></trkpt><trkpt lat="41.86084723832452" lon="0.4024730557457041"><ele>340.0</ele><time>2026-03-30T13:30:28Z</time></trkpt><trkpt lat="41.86076520773495" lon="0.4021482928434655"><ele>339.0</ele><time>2026-03-30T13:30:29Z</time></trkpt><trkpt lat="41.86069031601983" lon="0.4018319405426098"><ele>339.0</ele><time>2026-03-30T13:30:30Z</time></trkpt><trkpt lat="41.860616349765564" lon="0.40151581856588786"><ele>339.0</ele><time>2026-03-30T13:30:31Z</time></trkpt><trkpt lat="41.86054056572253" lon="0.40120177746077373"><ele>338.5</ele><time>2026-03-30T13:30:32Z</time></trkpt><trkpt lat="41.860465265808855" lon="0.40089749949260267"><ele>338.0</ele><time>2026-03-30T13:30:33Z</time></trkpt><trkpt lat="41.86038931126116" lon="0.40059132733376596"><ele>337.5</ele><time>2026-03-30T13:30:34Z</time></trkpt><trkpt lat="41.860313822749696" lon="0.40029156666730764"><ele>337.0</ele><time>2026-03-30T13:30:35Z</time></trkpt><trkpt lat="41.86024132814174" lon="0.39999142985093283"><ele>337.0</ele><time>2026-03-30T13:30:36Z</time></trkpt><trkpt lat="41.86017242009759" lon="0.39968917687328204"><ele>337.0</ele><time>2026-03-30T13:30:37Z</time></trkpt><trkpt lat="41.86010097006085" lon="0.39939239912177976"><ele>336.5</ele><time>2026-03-30T13:30:38Z</time></trkpt><trkpt lat="41.86002877878482" lon="0.3990964145406606"><ele>336.0</ele><time>2026-03-30T13:30:39Z</time></trkpt><trkpt lat="41.85995534253756" lon="0.3987968562728061"><ele>336.0</ele><time>2026-03-30T13:30:40Z</time></trkpt><trkpt lat="41.8598845423959" lon="0.39849791857316497"><ele>336.0</ele><time>2026-03-30T13:30:41Z</time></trkpt><trkpt lat="41.859814589949984" lon="0.3981978113632596"><ele>337.0</ele><time>2026-03-30T13:30:42Z</time></trkpt><trkpt lat="41.859740013122256" lon="0.3978954836717715"><ele>338.0</ele><time>2026-03-30T13:30:43Z</time></trkpt><trkpt lat="41.859665309053966" lon="0.3975926209195115"><ele>338.0</ele><time>2026-03-30T13:30:44Z</time></trkpt><trkpt lat="41.85959143281451" lon="0.39728394396752564"><ele>338.0</ele><time>2026-03-30T13:30:45Z</time></trkpt><trkpt lat="41.859516754977854" lon="0.39697449980298105"><ele>339.0</ele><time>2026-03-30T13:30:46Z</time></trkpt><trkpt lat="41.8594417424433" lon="0.39666451131986813"><ele>340.0</ele><time>2026-03-30T13:30:47Z</time></trkpt><trkpt lat="41.85936719516122" lon="0.39635600934368403"><ele>339.5</ele><time>2026-03-30T13:30:48Z</time></trkpt><trkpt lat="41.859296108553075" lon="0.3960516468062333"><ele>339.0</ele><time>2026-03-30T13:30:49Z</time></trkpt><trkpt lat="41.85922310428672" lon="0.39574523810728085"><ele>339.5</ele><time>2026-03-30T13:30:50Z</time></trkpt><trkpt lat="41.859149132066854" lon="0.3954329721454104"><ele>340.0</ele><time>2026-03-30T13:30:51Z</time></trkpt><trkpt lat="41.85907054765969" lon="0.39510073628937326"><ele>340.0</ele><time>2026-03-30T13:30:52Z</time></trkpt><trkpt lat="41.85899217566313" lon="0.3947723578115962"><ele>340.0</ele><time>2026-03-30T13:30:53Z</time></trkpt><trkpt lat="41.85891135366592" lon="0.39444446403082045"><ele>339.0</ele><time>2026-03-30T13:30:54Z</time></trkpt><trkpt lat="41.85883175677061" lon="0.3941129872834085"><ele>338.0</ele><time>2026-03-30T13:30:55Z</time></trkpt><trkpt lat="41.85875368612107" lon="0.3937766325247405"><ele>336.0</ele><time>2026-03-30T13:30:56Z</time></trkpt><trkpt lat="41.85867582725492" lon="0.393441326386323"><ele>334.0</ele><time>2026-03-30T13:30:57Z</time></trkpt><trkpt lat="41.85859340885909" lon="0.393108240490745"><ele>332.5</ele><time>2026-03-30T13:30:58Z</time></trkpt><trkpt lat="41.85851183625347" lon="0.39277698799839744"><ele>331.0</ele><time>2026-03-30T13:30:59Z</time></trkpt><trkpt lat="41.85843169975655" lon="0.39244130625527623"><ele>331.5</ele><time>2026-03-30T13:31:00Z</time></trkpt><trkpt lat="41.85835498116358" lon="0.39211306370875537"><ele>332.0</ele><time>2026-03-30T13:31:01Z</time></trkpt><trkpt lat="41.85827574734046" lon="0.39178778033502315"><ele>332.0</ele><time>2026-03-30T13:31:02Z</time></trkpt><trkpt lat="41.858196564358806" lon="0.39146040799601994"><ele>332.0</ele><time>2026-03-30T13:31:03Z</time></trkpt><trkpt lat="41.858119289668856" lon="0.3911298025847204"><ele>332.0</ele><time>2026-03-30T13:31:04Z</time></trkpt><trkpt lat="41.85804307670562" lon="0.3907995098787387"><ele>332.0</ele><time>2026-03-30T13:31:05Z</time></trkpt><trkpt lat="41.85796627188482" lon="0.3904735642025912"><ele>332.0</ele><time>2026-03-30T13:31:06Z</time></trkpt><trkpt lat="41.85788828809446" lon="0.3901552751918205"><ele>332.0</ele><time>2026-03-30T13:31:07Z</time></trkpt><trkpt lat="41.85781227949197" lon="0.3898366694649652"><ele>331.5</ele><time>2026-03-30T13:31:08Z</time></trkpt><trkpt lat="41.85773533246485" lon="0.3895135563877311"><ele>331.0</ele><time>2026-03-30T13:31:09Z</time></trkpt><trkpt lat="41.85765778186598" lon="0.38919121327272826"><ele>330.0</ele><time>2026-03-30T13:31:10Z</time></trkpt><trkpt lat="41.857578930272126" lon="0.3888710551462334"><ele>329.0</ele><time>2026-03-30T13:31:11Z</time></trkpt><trkpt lat="41.85750183328021" lon="0.38854123699473014"><ele>329.0</ele><time>2026-03-30T13:31:12Z</time></trkpt><trkpt lat="41.85742479455894" lon="0.3882065040798307"><ele>329.0</ele><time>2026-03-30T13:31:13Z</time></trkpt><trkpt lat="41.85734631249407" lon="0.3878737385915337"><ele>328.5</ele><time>2026-03-30T13:31:14Z</time></trkpt><trkpt lat="41.857268429465705" lon="0.38755199550774455"><ele>328.0</ele><time>2026-03-30T13:31:15Z</time></trkpt><trkpt lat="41.85719092940876" lon="0.38723189726772717"><ele>327.5</ele><time>2026-03-30T13:31:16Z</time></trkpt><trkpt lat="41.85711495186237" lon="0.3869135263657347"><ele>327.0</ele><time>2026-03-30T13:31:17Z</time></trkpt><trkpt lat="41.857039887492085" lon="0.386598259307817"><ele>327.0</ele><time>2026-03-30T13:31:18Z</time></trkpt><trkpt lat="41.85696469867374" lon="0.38628746975837713"><ele>327.0</ele><time>2026-03-30T13:31:19Z</time></trkpt><trkpt lat="41.85688859023147" lon="0.3859782083756686"><ele>327.0</ele><time>2026-03-30T13:31:20Z</time></trkpt><trkpt lat="41.85681501818204" lon="0.38567132708217733"><ele>327.0</ele><time>2026-03-30T13:31:21Z</time></trkpt><trkpt lat="41.85674448344671" lon="0.3853670993163485"><ele>327.5</ele><time>2026-03-30T13:31:22Z</time></trkpt><trkpt lat="41.85667211810237" lon="0.3850650369732942"><ele>328.0</ele><time>2026-03-30T13:31:23Z</time></trkpt><trkpt lat="41.85660249363844" lon="0.3847659376492407"><ele>330.0</ele><time>2026-03-30T13:31:24Z</time></trkpt><trkpt lat="41.85653460866246" lon="0.3844729952026148"><ele>332.0</ele><time>2026-03-30T13:31:25Z</time></trkpt><trkpt lat="41.85646506999213" lon="0.38418487574756943"><ele>332.0</ele><time>2026-03-30T13:31:26Z</time></trkpt><trkpt lat="41.85639674049984" lon="0.38390339436426874"><ele>332.0</ele><time>2026-03-30T13:31:27Z</time></trkpt><trkpt lat="41.856325057025025" lon="0.38360556233589144"><ele>332.5</ele><time>2026-03-30T13:31:28Z</time></trkpt><trkpt lat="41.856249903287086" lon="0.383292713800216"><ele>333.0</ele><time>2026-03-30T13:31:29Z</time></trkpt><trkpt lat="41.856176138358975" lon="0.38297877104549305"><ele>333.5</ele><time>2026-03-30T13:31:30Z</time></trkpt><trkpt lat="41.85610272459526" lon="0.3826689040105068"><ele>334.0</ele><time>2026-03-30T13:31:31Z</time></trkpt><trkpt lat="41.85603036849041" lon="0.38236668578950384"><ele>335.0</ele><time>2026-03-30T13:31:32Z</time></trkpt><trkpt lat="41.855958378139086" lon="0.38206309987524767"><ele>336.0</ele><time>2026-03-30T13:31:33Z</time></trkpt><trkpt lat="41.85588485229128" lon="0.38175715284394407"><ele>336.0</ele><time>2026-03-30T13:31:34Z</time></trkpt><trkpt lat="41.85581234421585" lon="0.38145446551338524"><ele>336.0</ele><time>2026-03-30T13:31:35Z</time></trkpt><trkpt lat="41.85573880543005" lon="0.3811448585600895"><ele>336.0</ele><time>2026-03-30T13:31:36Z</time></trkpt><trkpt lat="41.85566313923148" lon="0.3808334928446562"><ele>336.0</ele><time>2026-03-30T13:31:37Z</time></trkpt><trkpt lat="41.85558673488785" lon="0.3805212703803085"><ele>336.5</ele><time>2026-03-30T13:31:38Z</time></trkpt><trkpt lat="41.855509727792345" lon="0.3802043591517488"><ele>337.0</ele><time>2026-03-30T13:31:39Z</time></trkpt><trkpt lat="41.855431262620506" lon="0.37988406185398554"><ele>337.0</ele><time>2026-03-30T13:31:40Z</time></trkpt><trkpt lat="41.85535414038986" lon="0.3795667122849801"><ele>337.0</ele><time>2026-03-30T13:31:41Z</time></trkpt><trkpt lat="41.855283512866166" lon="0.37925496229746225"><ele>337.0</ele><time>2026-03-30T13:31:42Z</time></trkpt><trkpt lat="41.85521126768794" lon="0.37895170486324764"><ele>337.0</ele><time>2026-03-30T13:31:43Z</time></trkpt><trkpt lat="41.85513715725482" lon="0.3786487833634253"><ele>337.5</ele><time>2026-03-30T13:31:44Z</time></trkpt><trkpt lat="41.85506724761351" lon="0.3783542620012133"><ele>338.0</ele><time>2026-03-30T13:31:45Z</time></trkpt><trkpt lat="41.854999611514415" lon="0.378064131554156"><ele>338.0</ele><time>2026-03-30T13:31:46Z</time></trkpt><trkpt lat="41.85493293475567" lon="0.3777812584043054"><ele>338.0</ele><time>2026-03-30T13:31:47Z</time></trkpt><trkpt lat="41.854867256137474" lon="0.3774978649688709"><ele>338.0</ele><time>2026-03-30T13:31:48Z</time></trkpt><trkpt lat="41.854802615766076" lon="0.3772172668278161"><ele>338.0</ele><time>2026-03-30T13:31:49Z</time></trkpt><trkpt lat="41.85474034195015" lon="0.37693791592344694"><ele>338.0</ele><time>2026-03-30T13:31:50Z</time></trkpt><trkpt lat="41.85468282052345" lon="0.37665879144299214"><ele>338.0</ele><time>2026-03-30T13:31:51Z</time></trkpt><trkpt lat="41.854624533212956" lon="0.3763797241782852"><ele>338.33333333333337</ele><time>2026-03-30T13:31:52Z</time></trkpt><trkpt lat="41.85455501824008" lon="0.3760865239014772"><ele>338.6666666666667</ele><time>2026-03-30T13:31:53Z</time></trkpt><trkpt lat="41.85449158565827" lon="0.3758241979763587"><ele>339.0</ele><time>2026-03-30T13:31:54Z</time></trkpt><trkpt lat="41.85442805049917" lon="0.37557568155514964"><ele>339.0</ele><time>2026-03-30T13:31:55Z</time></trkpt><trkpt lat="41.85436409675997" lon="0.37531960972934686"><ele>339.0</ele><time>2026-03-30T13:31:56Z</time></trkpt><trkpt lat="41.85430216199399" lon="0.3750550026639973"><ele>339.0</ele><time>2026-03-30T13:31:57Z</time></trkpt><trkpt lat="41.854238853688926" lon="0.37478264993375815"><ele>339.3333333333333</ele><time>2026-03-30T13:31:58Z</time></trkpt><trkpt lat="41.85416934912299" lon="0.3745038412179785"><ele>339.66666666666663</ele><time>2026-03-30T13:31:59Z</time></trkpt><trkpt lat="41.85409807561137" lon="0.3742316778708499"><ele>340.0</ele><time>2026-03-30T13:32:00Z</time></trkpt><trkpt lat="41.854020685233834" lon="0.373968856168392"><ele>340.0</ele><time>2026-03-30T13:32:01Z</time></trkpt><trkpt lat="41.85394575282854" lon="0.3737013225608621"><ele>340.0</ele><time>2026-03-30T13:32:02Z</time></trkpt><trkpt lat="41.853887542518294" lon="0.37343077618488385"><ele>340.0</ele><time>2026-03-30T13:32:03Z</time></trkpt><trkpt lat="41.85382890619781" lon="0.373165080254426"><ele>340.0</ele><time>2026-03-30T13:32:04Z</time></trkpt><trkpt lat="41.85377245227404" lon="0.37289573849006646"><ele>340.0</ele><time>2026-03-30T13:32:05Z</time></trkpt><trkpt lat="41.8537340903264" lon="0.37261830639315574"><ele>340.0</ele><time>2026-03-30T13:32:06Z</time></trkpt><trkpt lat="41.853704197727865" lon="0.3723342023242499"><ele>339.66666666666663</ele><time>2026-03-30T13:32:07Z</time></trkpt><trkpt lat="41.85368673421385" lon="0.3720479114243683"><ele>339.3333333333333</ele><time>2026-03-30T13:32:08Z</time></trkpt><trkpt lat="41.853684284655856" lon="0.3717668715265599"><ele>339.0</ele><time>2026-03-30T13:32:09Z</time></trkpt><trkpt lat="41.85369763799531" lon="0.3714891559866485"><ele>338.6666666666667</ele><time>2026-03-30T13:32:10Z</time></trkpt><trkpt lat="41.85372318084759" lon="0.37120614116994793"><ele>338.33333333333337</ele><time>2026-03-30T13:32:11Z</time></trkpt><trkpt lat="41.85376463640959" lon="0.37092080118603227"><ele>338.0</ele><time>2026-03-30T13:32:12Z</time></trkpt><trkpt lat="41.85381297959559" lon="0.3706330814933282"><ele>335.6666666666667</ele><time>2026-03-30T13:32:13Z</time></trkpt><trkpt lat="41.85387655662683" lon="0.3703470509418115"><ele>333.3333333333333</ele><time>2026-03-30T13:32:14Z</time></trkpt><trkpt lat="41.853955511055304" lon="0.370066578191343"><ele>331.0</ele><time>2026-03-30T13:32:15Z</time></trkpt><trkpt lat="41.854060162103245" lon="0.36979748427195"><ele>328.66666666666663</ele><time>2026-03-30T13:32:16Z</time></trkpt><trkpt lat="41.85416444207283" lon="0.36953487761134074"><ele>326.3333333333333</ele><time>2026-03-30T13:32:17Z</time></trkpt><trkpt lat="41.854274429196984" lon="0.3692780745069223"><ele>324.0</ele><time>2026-03-30T13:32:18Z</time></trkpt><trkpt lat="41.85438772331703" lon="0.36902627903789886"><ele>322.3333333333333</ele><time>2026-03-30T13:32:19Z</time></trkpt><trkpt lat="41.8544978599727" lon="0.36878472309462074"><ele>320.66666666666663</ele><time>2026-03-30T13:32:20Z</time></trkpt><trkpt lat="41.85461521002185" lon="0.36853005706401126"><ele>319.0</ele><time>2026-03-30T13:32:21Z</time></trkpt><trkpt lat="41.85472151103725" lon="0.36827322965809844"><ele>318.0</ele><time>2026-03-30T13:32:22Z</time></trkpt><trkpt lat="41.85481502068311" lon="0.3680063113167936"><ele>317.0</ele><time>2026-03-30T13:32:23Z</time></trkpt><trkpt lat="41.85489565792173" lon="0.36773341268593057"><ele>316.0</ele><time>2026-03-30T13:32:24Z</time></trkpt><trkpt lat="41.854964543154104" lon="0.367461929663845"><ele>315.66666666666663</ele><time>2026-03-30T13:32:25Z</time></trkpt><trkpt lat="41.855025665726714" lon="0.36717542834573275"><ele>315.3333333333333</ele><time>2026-03-30T13:32:26Z</time></trkpt><trkpt lat="41.85507609929159" lon="0.366885458683804"><ele>315.0</ele><time>2026-03-30T13:32:27Z</time></trkpt><trkpt lat="41.85510807757421" lon="0.36658244051051087"><ele>315.0</ele><time>2026-03-30T13:32:28Z</time></trkpt><trkpt lat="41.85512456901518" lon="0.3662743874659744"><ele>315.0</ele><time>2026-03-30T13:32:29Z</time></trkpt><trkpt lat="41.85512945261913" lon="0.36596106110895615"><ele>315.0</ele><time>2026-03-30T13:32:30Z</time></trkpt><trkpt lat="41.85512603668558" lon="0.36564392268784934"><ele>315.0</ele><time>2026-03-30T13:32:31Z</time></trkpt><trkpt lat="41.85509297969798" lon="0.36533277428873157"><ele>315.5</ele><time>2026-03-30T13:32:32Z</time></trkpt><trkpt lat="41.855062760125215" lon="0.365015554168819"><ele>316.0</ele><time>2026-03-30T13:32:33Z</time></trkpt><trkpt lat="41.85502003689863" lon="0.3647050798200653"><ele>316.0</ele><time>2026-03-30T13:32:34Z</time></trkpt><trkpt lat="41.85496867126486" lon="0.36439725756966523"><ele>316.0</ele><time>2026-03-30T13:32:35Z</time></trkpt><trkpt lat="41.85491484916825" lon="0.36408406633944107"><ele>317.0</ele><time>2026-03-30T13:32:36Z</time></trkpt><trkpt lat="41.85486260042493" lon="0.36377397676211565"><ele>318.0</ele><time>2026-03-30T13:32:37Z</time></trkpt><trkpt lat="41.85481187210553" lon="0.36346483032161747"><ele>318.0</ele><time>2026-03-30T13:32:38Z</time></trkpt><trkpt lat="41.854764647046586" lon="0.3631566970855085"><ele>318.0</ele><time>2026-03-30T13:32:39Z</time></trkpt><trkpt lat="41.85471844342302" lon="0.3628584030585311"><ele>319.6666666666667</ele><time>2026-03-30T13:32:40Z</time></trkpt><trkpt lat="41.854675124279375" lon="0.36257451382118777"><ele>321.33333333333337</ele><time>2026-03-30T13:32:41Z</time></trkpt><trkpt lat="41.85462834094379" lon="0.36228843543049577"><ele>323.0</ele><time>2026-03-30T13:32:42Z</time></trkpt><trkpt lat="41.85457652067696" lon="0.36199866735292857"><ele>324.5</ele><time>2026-03-30T13:32:43Z</time></trkpt><trkpt lat="41.8545225531002" lon="0.3617022916117121"><ele>326.0</ele><time>2026-03-30T13:32:44Z</time></trkpt><trkpt lat="41.854472448785295" lon="0.3613900173183816"><ele>326.0</ele><time>2026-03-30T13:32:45Z</time></trkpt><trkpt lat="41.85442205596588" lon="0.3610571471604369"><ele>326.0</ele><time>2026-03-30T13:32:46Z</time></trkpt><trkpt lat="41.85436721492746" lon="0.3607087532428289"><ele>325.5</ele><time>2026-03-30T13:32:47Z</time></trkpt><trkpt lat="41.85430303598897" lon="0.36034608172491767"><ele>325.0</ele><time>2026-03-30T13:32:48Z</time></trkpt><trkpt lat="41.85423094873029" lon="0.35997061531706986"><ele>321.0</ele><time>2026-03-30T13:32:49Z</time></trkpt><trkpt lat="41.85415702055219" lon="0.35957840166555544"><ele>317.0</ele><time>2026-03-30T13:32:50Z</time></trkpt><trkpt lat="41.854088484506775" lon="0.35918690747743076"><ele>316.0</ele><time>2026-03-30T13:32:51Z</time></trkpt><trkpt lat="41.854026017598734" lon="0.35881243555150977"><ele>315.0</ele><time>2026-03-30T13:32:52Z</time></trkpt><trkpt lat="41.853965870432596" lon="0.35843680406091777"><ele>315.0</ele><time>2026-03-30T13:32:53Z</time></trkpt><trkpt lat="41.85391507535193" lon="0.3580553410422062"><ele>315.0</ele><time>2026-03-30T13:32:54Z</time></trkpt><trkpt lat="41.85387362992514" lon="0.35767644382086006"><ele>316.0</ele><time>2026-03-30T13:32:55Z</time></trkpt><trkpt lat="41.853829329924466" lon="0.35729443200395866"><ele>317.0</ele><time>2026-03-30T13:32:56Z</time></trkpt><trkpt lat="41.85376911473613" lon="0.3569176182361577"><ele>317.5</ele><time>2026-03-30T13:32:57Z</time></trkpt><trkpt lat="41.85370526438652" lon="0.35654230099335565"><ele>318.0</ele><time>2026-03-30T13:32:58Z</time></trkpt><trkpt lat="41.85364378350286" lon="0.35616890304593607"><ele>318.0</ele><time>2026-03-30T13:32:59Z</time></trkpt><trkpt lat="41.853582535785186" lon="0.3557952223194821"><ele>318.0</ele><time>2026-03-30T13:33:00Z</time></trkpt><trkpt lat="41.853523396936325" lon="0.35543050572478585"><ele>318.0</ele><time>2026-03-30T13:33:01Z</time></trkpt><trkpt lat="41.85346494023785" lon="0.3550697261889177"><ele>318.0</ele><time>2026-03-30T13:33:02Z</time></trkpt><trkpt lat="41.85340789089609" lon="0.3547126530241028"><ele>319.0</ele><time>2026-03-30T13:33:03Z</time></trkpt><trkpt lat="41.853352934608345" lon="0.3543655718058322"><ele>320.0</ele><time>2026-03-30T13:33:04Z</time></trkpt><trkpt lat="41.853298563126195" lon="0.3540189777915392"><ele>321.5</ele><time>2026-03-30T13:33:05Z</time></trkpt><trkpt lat="41.853245504832834" lon="0.3536818637988499"><ele>323.0</ele><time>2026-03-30T13:33:06Z</time></trkpt><trkpt lat="41.85319170939664" lon="0.35334903497598186"><ele>324.5</ele><time>2026-03-30T13:33:07Z</time></trkpt><trkpt lat="41.85313876148436" lon="0.3530223426075642"><ele>326.0</ele><time>2026-03-30T13:33:08Z</time></trkpt><trkpt lat="41.853086636150906" lon="0.35269479580948215"><ele>326.0</ele><time>2026-03-30T13:33:09Z</time></trkpt><trkpt lat="41.853033042527976" lon="0.3523665126427548"><ele>326.0</ele><time>2026-03-30T13:33:10Z</time></trkpt><trkpt lat="41.852976657770064" lon="0.35204057432278385"><ele>326.5</ele><time>2026-03-30T13:33:11Z</time></trkpt><trkpt lat="41.852920603302216" lon="0.3517130120692621"><ele>327.0</ele><time>2026-03-30T13:33:12Z</time></trkpt><trkpt lat="41.8528679749373" lon="0.351383134061868"><ele>327.5</ele><time>2026-03-30T13:33:13Z</time></trkpt><trkpt lat="41.852820106162504" lon="0.3510498377526119"><ele>328.0</ele><time>2026-03-30T13:33:14Z</time></trkpt><trkpt lat="41.852775157412616" lon="0.350708444044844"><ele>327.5</ele><time>2026-03-30T13:33:15Z</time></trkpt><trkpt lat="41.852731733598404" lon="0.3503642051380163"><ele>327.0</ele><time>2026-03-30T13:33:16Z</time></trkpt><trkpt lat="41.85269096702332" lon="0.35001668704724725"><ele>325.5</ele><time>2026-03-30T13:33:17Z</time></trkpt><trkpt lat="41.852653926799675" lon="0.3496697656797828"><ele>324.0</ele><time>2026-03-30T13:33:18Z</time></trkpt><trkpt lat="41.85262244371489" lon="0.3493220625460533"><ele>321.0</ele><time>2026-03-30T13:33:19Z</time></trkpt><trkpt lat="41.85259474031124" lon="0.34897446302634894"><ele>318.0</ele><time>2026-03-30T13:33:20Z</time></trkpt><trkpt lat="41.85256981916843" lon="0.348626233814807"><ele>317.5</ele><time>2026-03-30T13:33:21Z</time></trkpt><trkpt lat="41.85255031018726" lon="0.34827233057345375"><ele>317.0</ele><time>2026-03-30T13:33:22Z</time></trkpt><trkpt lat="41.85253257939646" lon="0.34792156884239206"><ele>315.5</ele><time>2026-03-30T13:33:23Z</time></trkpt><trkpt lat="41.85251516169534" lon="0.34756727802623677"><ele>314.0</ele><time>2026-03-30T13:33:24Z</time></trkpt><trkpt lat="41.85249666826023" lon="0.3472097463952055"><ele>312.0</ele><time>2026-03-30T13:33:25Z</time></trkpt><trkpt lat="41.85247722193693" lon="0.3468534929921207"><ele>310.0</ele><time>2026-03-30T13:33:26Z</time></trkpt><trkpt lat="41.852456437838384" lon="0.3464952294375862"><ele>308.5</ele><time>2026-03-30T13:33:27Z</time></trkpt><trkpt lat="41.85243832783718" lon="0.34613519011432464"><ele>307.0</ele><time>2026-03-30T13:33:28Z</time></trkpt><trkpt lat="41.85242330360408" lon="0.3457748838724264"><ele>306.5</ele><time>2026-03-30T13:33:29Z</time></trkpt><trkpt lat="41.85240844384131" lon="0.3454156921796381"><ele>306.0</ele><time>2026-03-30T13:33:30Z</time></trkpt><trkpt lat="41.85239120897567" lon="0.34505290818561923"><ele>304.5</ele><time>2026-03-30T13:33:31Z</time></trkpt><trkpt lat="41.85237187227776" lon="0.3446950408604108"><ele>303.0</ele><time>2026-03-30T13:33:32Z</time></trkpt><trkpt lat="41.85235203605413" lon="0.344341568570255"><ele>303.0</ele><time>2026-03-30T13:33:33Z</time></trkpt><trkpt lat="41.85233407659668" lon="0.34398307245159715"><ele>303.0</ele><time>2026-03-30T13:33:34Z</time></trkpt><trkpt lat="41.85231565996083" lon="0.34362221679079996"><ele>302.5</ele><time>2026-03-30T13:33:35Z</time></trkpt><trkpt lat="41.85230007278425" lon="0.3432659938149757"><ele>302.0</ele><time>2026-03-30T13:33:36Z</time></trkpt><trkpt lat="41.852283773003144" lon="0.3429050382913296"><ele>301.5</ele><time>2026-03-30T13:33:37Z</time></trkpt><trkpt lat="41.85226101152077" lon="0.3425191961580425"><ele>301.0</ele><time>2026-03-30T13:33:38Z</time></trkpt><trkpt lat="41.85223702654306" lon="0.34212414355651266"><ele>301.0</ele><time>2026-03-30T13:33:39Z</time></trkpt><trkpt lat="41.8522196057604" lon="0.34171452492626564"><ele>301.0</ele><time>2026-03-30T13:33:40Z</time></trkpt><trkpt lat="41.852203730154216" lon="0.34131309894590645"><ele>299.5</ele><time>2026-03-30T13:33:41Z</time></trkpt><trkpt lat="41.852186207101916" lon="0.3409200003744541"><ele>298.0</ele><time>2026-03-30T13:33:42Z</time></trkpt><trkpt lat="41.85216728191816" lon="0.34053604632908285"><ele>297.0</ele><time>2026-03-30T13:33:43Z</time></trkpt><trkpt lat="41.852147952020644" lon="0.34015490377898"><ele>296.0</ele><time>2026-03-30T13:33:44Z</time></trkpt><trkpt lat="41.85213092518594" lon="0.3397780651344933"><ele>293.5</ele><time>2026-03-30T13:33:45Z</time></trkpt><trkpt lat="41.85211366363069" lon="0.33940013485915327"><ele>291.0</ele><time>2026-03-30T13:33:46Z</time></trkpt><trkpt lat="41.85209407012862" lon="0.3390256435683525"><ele>290.5</ele><time>2026-03-30T13:33:47Z</time></trkpt><trkpt lat="41.852074263279476" lon="0.3386533253002422"><ele>290.0</ele><time>2026-03-30T13:33:48Z</time></trkpt><trkpt lat="41.85205591071348" lon="0.33827844051307254"><ele>290.0</ele><time>2026-03-30T13:33:49Z</time></trkpt><trkpt lat="41.85203906957887" lon="0.33790525326715265"><ele>290.0</ele><time>2026-03-30T13:33:50Z</time></trkpt><trkpt lat="41.85202103675121" lon="0.33754001122438454"><ele>291.0</ele><time>2026-03-30T13:33:51Z</time></trkpt><trkpt lat="41.85200433929997" lon="0.33718215805933205"><ele>292.0</ele><time>2026-03-30T13:33:52Z</time></trkpt><trkpt lat="41.85198813818956" lon="0.336823228397631"><ele>292.0</ele><time>2026-03-30T13:33:53Z</time></trkpt><trkpt lat="41.85197415364987" lon="0.33646977261126554"><ele>292.0</ele><time>2026-03-30T13:33:54Z</time></trkpt><trkpt lat="41.851959855947534" lon="0.3361239029716682"><ele>292.5</ele><time>2026-03-30T13:33:55Z</time></trkpt><trkpt lat="41.85194377545599" lon="0.33578152157828384"><ele>293.0</ele><time>2026-03-30T13:33:56Z</time></trkpt><trkpt lat="41.85192852415867" lon="0.335437664508202"><ele>293.0</ele><time>2026-03-30T13:33:57Z</time></trkpt><trkpt lat="41.851913304895035" lon="0.3350831824205969"><ele>293.0</ele><time>2026-03-30T13:33:58Z</time></trkpt><trkpt lat="41.85190091296091" lon="0.3347131647552293"><ele>293.0</ele><time>2026-03-30T13:33:59Z</time></trkpt><trkpt lat="41.851890853277894" lon="0.33434393089161857"><ele>293.0</ele><time>2026-03-30T13:34:00Z</time></trkpt><trkpt lat="41.85188079046137" lon="0.33397870743360725"><ele>293.0</ele><time>2026-03-30T13:34:01Z</time></trkpt><trkpt lat="41.851867378474175" lon="0.33361943600912275"><ele>293.0</ele><time>2026-03-30T13:34:02Z</time></trkpt><trkpt lat="41.8518532301491" lon="0.33326411948567264"><ele>293.0</ele><time>2026-03-30T13:34:03Z</time></trkpt><trkpt lat="41.85183704757074" lon="0.33291518970897693"><ele>293.0</ele><time>2026-03-30T13:34:04Z</time></trkpt><trkpt lat="41.851820861783565" lon="0.3325697779414801"><ele>293.0</ele><time>2026-03-30T13:34:05Z</time></trkpt><trkpt lat="41.851805050557196" lon="0.33222492146045496"><ele>293.0</ele><time>2026-03-30T13:34:06Z</time></trkpt><trkpt lat="41.851787495359666" lon="0.3318757610957621"><ele>295.0</ele><time>2026-03-30T13:34:07Z</time></trkpt><trkpt lat="41.851770954589554" lon="0.3315265908387692"><ele>297.0</ele><time>2026-03-30T13:34:08Z</time></trkpt><trkpt lat="41.851754604325684" lon="0.3311824680680824"><ele>297.5</ele><time>2026-03-30T13:34:09Z</time></trkpt><trkpt lat="41.85173660715406" lon="0.3308364914667525"><ele>298.0</ele><time>2026-03-30T13:34:10Z</time></trkpt><trkpt lat="41.85171759070617" lon="0.33049149009159245"><ele>298.0</ele><time>2026-03-30T13:34:11Z</time></trkpt><trkpt lat="41.85170086957487" lon="0.33014014045049744"><ele>298.0</ele><time>2026-03-30T13:34:12Z</time></trkpt><trkpt lat="41.8516840079249" lon="0.32979599639529894"><ele>298.0</ele><time>2026-03-30T13:34:13Z</time></trkpt><trkpt lat="41.85166353709625" lon="0.32944232346258906"><ele>298.0</ele><time>2026-03-30T13:34:14Z</time></trkpt><trkpt lat="41.85164749112109" lon="0.32908968126582433"><ele>297.5</ele><time>2026-03-30T13:34:15Z</time></trkpt><trkpt lat="41.851629740737614" lon="0.328735071124496"><ele>297.0</ele><time>2026-03-30T13:34:16Z</time></trkpt><trkpt lat="41.85161192307392" lon="0.32838252794141976"><ele>296.0</ele><time>2026-03-30T13:34:17Z</time></trkpt><trkpt lat="41.85159226423102" lon="0.3280330588009938"><ele>295.0</ele><time>2026-03-30T13:34:18Z</time></trkpt><trkpt lat="41.85157438063905" lon="0.32767652328753233"><ele>295.0</ele><time>2026-03-30T13:34:19Z</time></trkpt><trkpt lat="41.85155416867402" lon="0.3273245235003909"><ele>295.0</ele><time>2026-03-30T13:34:20Z</time></trkpt><trkpt lat="41.85153572638263" lon="0.32697141550067893"><ele>295.5</ele><time>2026-03-30T13:34:21Z</time></trkpt><trkpt lat="41.851517158214264" lon="0.3266220333257845"><ele>296.0</ele><time>2026-03-30T13:34:22Z</time></trkpt><trkpt lat="41.85150091961661" lon="0.32627127763001684"><ele>296.0</ele><time>2026-03-30T13:34:23Z</time></trkpt><trkpt lat="41.851485454295656" lon="0.3259181582027924"><ele>296.0</ele><time>2026-03-30T13:34:24Z</time></trkpt><trkpt lat="41.85146818762337" lon="0.32556835096630143"><ele>295.5</ele><time>2026-03-30T13:34:25Z</time></trkpt><trkpt lat="41.85145035121048" lon="0.32522033190891936"><ele>295.0</ele><time>2026-03-30T13:34:26Z</time></trkpt><trkpt lat="41.85142930824718" lon="0.3248639080615396"><ele>295.0</ele><time>2026-03-30T13:34:27Z</time></trkpt><trkpt lat="41.85140655047206" lon="0.32450026763295015"><ele>295.0</ele><time>2026-03-30T13:34:28Z</time></trkpt><trkpt lat="41.85138737739923" lon="0.32414147534980436"><ele>294.5</ele><time>2026-03-30T13:34:29Z</time></trkpt><trkpt lat="41.851368547932715" lon="0.3237862993944783"><ele>294.0</ele><time>2026-03-30T13:34:30Z</time></trkpt><trkpt lat="41.851354900546944" lon="0.32343393079643673"><ele>294.0</ele><time>2026-03-30T13:34:31Z</time></trkpt><trkpt lat="41.85134215471152" lon="0.323098745487167"><ele>294.0</ele><time>2026-03-30T13:34:32Z</time></trkpt><trkpt lat="41.85132674649774" lon="0.3227626471532886"><ele>292.5</ele><time>2026-03-30T13:34:33Z</time></trkpt><trkpt lat="41.85130870698377" lon="0.32242196250566413"><ele>291.0</ele><time>2026-03-30T13:34:34Z</time></trkpt><trkpt lat="41.8512904346487" lon="0.3220842019978545"><ele>290.5</ele><time>2026-03-30T13:34:35Z</time></trkpt><trkpt lat="41.85127261225889" lon="0.32174924497032925"><ele>290.0</ele><time>2026-03-30T13:34:36Z</time></trkpt><trkpt lat="41.85125139774194" lon="0.32140348005006264"><ele>290.0</ele><time>2026-03-30T13:34:37Z</time></trkpt><trkpt lat="41.8512305929911" lon="0.32106305923839124"><ele>290.0</ele><time>2026-03-30T13:34:38Z</time></trkpt><trkpt lat="41.85120990822233" lon="0.32072692040514944"><ele>288.5</ele><time>2026-03-30T13:34:39Z</time></trkpt><trkpt lat="41.85118901414215" lon="0.32039268568450896"><ele>287.0</ele><time>2026-03-30T13:34:40Z</time></trkpt><trkpt lat="41.851165957633576" lon="0.32006252093282994"><ele>287.0</ele><time>2026-03-30T13:34:41Z</time></trkpt><trkpt lat="41.851141255116495" lon="0.31973502889349154"><ele>287.0</ele><time>2026-03-30T13:34:42Z</time></trkpt><trkpt lat="41.851120896214134" lon="0.31941372321552947"><ele>287.0</ele><time>2026-03-30T13:34:43Z</time></trkpt><trkpt lat="41.851101705580035" lon="0.31909406892626463"><ele>287.0</ele><time>2026-03-30T13:34:44Z</time></trkpt><trkpt lat="41.85107957263941" lon="0.31877796710694156"><ele>287.0</ele><time>2026-03-30T13:34:45Z</time></trkpt><trkpt lat="41.851058868415954" lon="0.31846667673813456"><ele>287.0</ele><time>2026-03-30T13:34:46Z</time></trkpt><trkpt lat="41.85103780914723" lon="0.3181496667701753"><ele>287.5</ele><time>2026-03-30T13:34:47Z</time></trkpt><trkpt lat="41.8510165778783" lon="0.3178288126207807"><ele>288.0</ele><time>2026-03-30T13:34:48Z</time></trkpt><trkpt lat="41.85099489385867" lon="0.3175130212848482"><ele>288.5</ele><time>2026-03-30T13:34:49Z</time></trkpt><trkpt lat="41.85097338582547" lon="0.3171959392303468"><ele>289.0</ele><time>2026-03-30T13:34:50Z</time></trkpt><trkpt lat="41.85095239964768" lon="0.3168803780616372"><ele>289.0</ele><time>2026-03-30T13:34:51Z</time></trkpt><trkpt lat="41.85093291094784" lon="0.3165584824411861"><ele>289.0</ele><time>2026-03-30T13:34:52Z</time></trkpt><trkpt lat="41.85091272088489" lon="0.3162320803403211"><ele>289.5</ele><time>2026-03-30T13:34:53Z</time></trkpt><trkpt lat="41.85089023191758" lon="0.3159032566611496"><ele>290.0</ele><time>2026-03-30T13:34:54Z</time></trkpt><trkpt lat="41.850872553536114" lon="0.3156001423606705"><ele>289.0</ele><time>2026-03-30T13:34:55Z</time></trkpt><trkpt lat="41.85085448377162" lon="0.31527161128449693"><ele>288.0</ele><time>2026-03-30T13:34:56Z</time></trkpt><trkpt lat="41.85083837663165" lon="0.314948682504252"><ele>286.0</ele><time>2026-03-30T13:34:57Z</time></trkpt><trkpt lat="41.850822152605076" lon="0.3146233395020875"><ele>284.0</ele><time>2026-03-30T13:34:58Z</time></trkpt><trkpt lat="41.8508002289147" lon="0.3142930858239173"><ele>284.0</ele><time>2026-03-30T13:34:59Z</time></trkpt><trkpt lat="41.85078106354932" lon="0.31396412625563197"><ele>284.0</ele><time>2026-03-30T13:35:00Z</time></trkpt><trkpt lat="41.85076536681324" lon="0.31363304732560476"><ele>282.5</ele><time>2026-03-30T13:35:01Z</time></trkpt><trkpt lat="41.850749825131565" lon="0.31330596774612524"><ele>281.0</ele><time>2026-03-30T13:35:02Z</time></trkpt><trkpt lat="41.850732484767754" lon="0.31298052176695895"><ele>280.0</ele><time>2026-03-30T13:35:03Z</time></trkpt><trkpt lat="41.85071299007712" lon="0.3126544335507675"><ele>279.0</ele><time>2026-03-30T13:35:04Z</time></trkpt><trkpt lat="41.85069531621069" lon="0.31232305924932646"><ele>279.0</ele><time>2026-03-30T13:35:05Z</time></trkpt><trkpt lat="41.850680686013014" lon="0.311970864441468"><ele>279.0</ele><time>2026-03-30T13:35:06Z</time></trkpt><trkpt lat="41.85067296961925" lon="0.3116356350581063"><ele>278.5</ele><time>2026-03-30T13:35:07Z</time></trkpt><trkpt lat="41.85066185507585" lon="0.3113088038931487"><ele>278.0</ele><time>2026-03-30T13:35:08Z</time></trkpt><trkpt lat="41.850648708303396" lon="0.31099340752259486"><ele>278.0</ele><time>2026-03-30T13:35:09Z</time></trkpt><trkpt lat="41.850634449687625" lon="0.3106933826952304"><ele>278.0</ele><time>2026-03-30T13:35:10Z</time></trkpt><trkpt lat="41.85061926936349" lon="0.3104102966497476"><ele>278.0</ele><time>2026-03-30T13:35:11Z</time></trkpt><trkpt lat="41.85060947634526" lon="0.31014465820916204"><ele>278.33333333333337</ele><time>2026-03-30T13:35:12Z</time></trkpt><trkpt lat="41.850601104891204" lon="0.3098897008227981"><ele>278.6666666666667</ele><time>2026-03-30T13:35:13Z</time></trkpt><trkpt lat="41.850589795813825" lon="0.3096473209642624"><ele>279.0</ele><time>2026-03-30T13:35:14Z</time></trkpt><trkpt lat="41.850581297409725" lon="0.30941806529392374"><ele>278.3333333333333</ele><time>2026-03-30T13:35:15Z</time></trkpt><trkpt lat="41.85057127708114" lon="0.3092015878537314"><ele>277.66666666666663</ele><time>2026-03-30T13:35:16Z</time></trkpt><trkpt lat="41.850560644964915" lon="0.308998940850006"><ele>277.0</ele><time>2026-03-30T13:35:17Z</time></trkpt><trkpt lat="41.85055114102977" lon="0.3088075705718498"><ele>276.25</ele><time>2026-03-30T13:35:18Z</time></trkpt><trkpt lat="41.85053773018246" lon="0.3086238903153434"><ele>275.5</ele><time>2026-03-30T13:35:19Z</time></trkpt><trkpt lat="41.850527064302625" lon="0.3084491251827032"><ele>274.75</ele><time>2026-03-30T13:35:20Z</time></trkpt><trkpt lat="41.850523249417854" lon="0.3082979412684115"><ele>274.0</ele><time>2026-03-30T13:35:21Z</time></trkpt><trkpt lat="41.8505164456311" lon="0.308170205449032"><ele>273.59999999999997</ele><time>2026-03-30T13:35:22Z</time></trkpt><trkpt lat="41.8505282689636" lon="0.3080401015859024"><ele>273.2</ele><time>2026-03-30T13:35:23Z</time></trkpt><trkpt lat="41.85056901433898" lon="0.3079448761699164"><ele>272.79999999999995</ele><time>2026-03-30T13:35:24Z</time></trkpt><trkpt lat="41.85063434263204" lon="0.3078611670573022"><ele>272.4</ele><time>2026-03-30T13:35:25Z</time></trkpt><trkpt lat="41.8506769470978" lon="0.3077539768440003"><ele>272.0</ele><time>2026-03-30T13:35:26Z</time></trkpt><trkpt lat="41.85066129844606" lon="0.30762503592055834"><ele>272.0</ele><time>2026-03-30T13:35:27Z</time></trkpt><trkpt lat="41.85060059623117" lon="0.30751759858755995"><ele>272.0</ele><time>2026-03-30T13:35:28Z</time></trkpt><trkpt lat="41.85052783644129" lon="0.3074314600505184"><ele>272.0</ele><time>2026-03-30T13:35:29Z</time></trkpt><trkpt lat="41.85046782813507" lon="0.3073458135911026"><ele>272.0</ele><time>2026-03-30T13:35:30Z</time></trkpt><trkpt lat="41.850440002931556" lon="0.3072396758290124"><ele>272.0</ele><time>2026-03-30T13:35:31Z</time></trkpt><trkpt lat="41.85043837238219" lon="0.3071199768871637"><ele>271.8</ele><time>2026-03-30T13:35:32Z</time></trkpt><trkpt lat="41.85043987206283" lon="0.3069984295194651"><ele>271.6</ele><time>2026-03-30T13:35:33Z</time></trkpt><trkpt lat="41.850430774027785" lon="0.30685241814560715"><ele>271.40000000000003</ele><time>2026-03-30T13:35:34Z</time></trkpt><trkpt lat="41.85042338648513" lon="0.3067050893540351"><ele>271.2</ele><time>2026-03-30T13:35:35Z</time></trkpt><trkpt lat="41.85041570824361" lon="0.30657568214970743"><ele>271.0</ele><time>2026-03-30T13:35:36Z</time></trkpt><trkpt lat="41.85040622312488" lon="0.3064501929158123"><ele>270.6</ele><time>2026-03-30T13:35:37Z</time></trkpt><trkpt lat="41.85039528331206" lon="0.3063168819066641"><ele>270.20000000000005</ele><time>2026-03-30T13:35:38Z</time></trkpt><trkpt lat="41.850387826958865" lon="0.3061844472452839"><ele>269.79999999999995</ele><time>2026-03-30T13:35:39Z</time></trkpt><trkpt lat="41.850381329419086" lon="0.306062069092893"><ele>269.4</ele><time>2026-03-30T13:35:40Z</time></trkpt><trkpt lat="41.850372981871054" lon="0.3059387859234025"><ele>269.0</ele><time>2026-03-30T13:35:41Z</time></trkpt><trkpt lat="41.850365577218035" lon="0.30580379247326805"><ele>269.0</ele><time>2026-03-30T13:35:42Z</time></trkpt><trkpt lat="41.85036041867982" lon="0.3056687791244238"><ele>269.0</ele><time>2026-03-30T13:35:43Z</time></trkpt><trkpt lat="41.85035343833685" lon="0.30554652882832184"><ele>269.0</ele><time>2026-03-30T13:35:44Z</time></trkpt><trkpt lat="41.85034707310548" lon="0.3054348567493608"><ele>269.0</ele><time>2026-03-30T13:35:45Z</time></trkpt><trkpt lat="41.8503470978482" lon="0.3053320597642453"><ele>269.0</ele><time>2026-03-30T13:35:46Z</time></trkpt><trkpt lat="41.85033965821504" lon="0.30523024668087273"><ele>269.0</ele><time>2026-03-30T13:35:47Z</time></trkpt><trkpt lat="41.85032921802828" lon="0.30511221753997964"><ele>269.0</ele><time>2026-03-30T13:35:48Z</time></trkpt><trkpt lat="41.850320584197334" lon="0.3049911129050375"><ele>269.0</ele><time>2026-03-30T13:35:49Z</time></trkpt><trkpt lat="41.850317704932486" lon="0.30488160157310784"><ele>269.0</ele><time>2026-03-30T13:35:50Z</time></trkpt><trkpt lat="41.85031565401766" lon="0.3047723475318416"><ele>269.0</ele><time>2026-03-30T13:35:51Z</time></trkpt><trkpt lat="41.850298556640254" lon="0.30467188595890377"><ele>269.0</ele><time>2026-03-30T13:35:52Z</time></trkpt><trkpt lat="41.85029204074176" lon="0.30456973525762593"><ele>269.0</ele><time>2026-03-30T13:35:53Z</time></trkpt><trkpt lat="41.85028567143012" lon="0.304457620502184"><ele>269.5</ele><time>2026-03-30T13:35:54Z</time></trkpt><trkpt lat="41.850281409074235" lon="0.3043498777446311"><ele>270.0</ele><time>2026-03-30T13:35:55Z</time></trkpt><trkpt lat="41.85027730579272" lon="0.304252306942626"><ele>270.5</ele><time>2026-03-30T13:35:56Z</time></trkpt><trkpt lat="41.85027366128001" lon="0.30416155566729514"><ele>271.0</ele><time>2026-03-30T13:35:57Z</time></trkpt><trkpt lat="41.85026914964593" lon="0.30406060674244884"><ele>271.5</ele><time>2026-03-30T13:35:58Z</time></trkpt><trkpt lat="41.850267309817326" lon="0.3039724992607611"><ele>272.0</ele><time>2026-03-30T13:35:59Z</time></trkpt><trkpt lat="41.85026463454871" lon="0.30383858554418813"><ele>272.0</ele><time>2026-03-30T13:36:01Z</time></trkpt><trkpt lat="41.85025760139745" lon="0.30369496800377316"><ele>272.0</ele><time>2026-03-30T13:36:03Z</time></trkpt><trkpt lat="41.85024625956173" lon="0.30352664651113737"><ele>272.0</ele><time>2026-03-30T13:36:05Z</time></trkpt><trkpt lat="41.85024309142121" lon="0.3034410262038395"><ele>272.0</ele><time>2026-03-30T13:36:06Z</time></trkpt><trkpt lat="41.85023481928582" lon="0.3032865723490691"><ele>272.0</ele><time>2026-03-30T13:36:08Z</time></trkpt><trkpt lat="41.85022712025452" lon="0.3031455145054232"><ele>272.2</ele><time>2026-03-30T13:36:10Z</time></trkpt><trkpt lat="41.85022383853038" lon="0.30300867944196597"><ele>272.4</ele><time>2026-03-30T13:36:12Z</time></trkpt><trkpt lat="41.850213158591735" lon="0.3028591808916974"><ele>272.6</ele><time>2026-03-30T13:36:14Z</time></trkpt><trkpt lat="41.85020770765006" lon="0.30275385706670205"><ele>272.8</ele><time>2026-03-30T13:36:15Z</time></trkpt><trkpt lat="41.85019936402355" lon="0.30264514826922484"><ele>273.0</ele><time>2026-03-30T13:36:16Z</time></trkpt><trkpt lat="41.850193019010085" lon="0.3025437064801639"><ele>273.0</ele><time>2026-03-30T13:36:17Z</time></trkpt><trkpt lat="41.85018685660476" lon="0.3024448694900152"><ele>273.0</ele><time>2026-03-30T13:36:18Z</time></trkpt><trkpt lat="41.85018137986121" lon="0.30235525244915634"><ele>273.0</ele><time>2026-03-30T13:36:19Z</time></trkpt><trkpt lat="41.850175922787486" lon="0.3022638467093173"><ele>273.0</ele><time>2026-03-30T13:36:20Z</time></trkpt><trkpt lat="41.850172670294185" lon="0.3021739028862298"><ele>273.0</ele><time>2026-03-30T13:36:21Z</time></trkpt><trkpt lat="41.85016882750175" lon="0.3020772715409732"><ele>273.0</ele><time>2026-03-30T13:36:22Z</time></trkpt><trkpt lat="41.85015692433588" lon="0.3019814135893406"><ele>273.0</ele><time>2026-03-30T13:36:23Z</time></trkpt><trkpt lat="41.85015774560867" lon="0.30186890098094776"><ele>273.14285714285717</ele><time>2026-03-30T13:36:24Z</time></trkpt><trkpt lat="41.85014928641621" lon="0.3017615541055991"><ele>273.2857142857143</ele><time>2026-03-30T13:36:25Z</time></trkpt><trkpt lat="41.85014886579147" lon="0.30165257670171697"><ele>273.42857142857144</ele><time>2026-03-30T13:36:26Z</time></trkpt><trkpt lat="41.850148594540634" lon="0.30155010264534243"><ele>273.57142857142856</ele><time>2026-03-30T13:36:27Z</time></trkpt><trkpt lat="41.850145402084564" lon="0.3014507426928353"><ele>273.7142857142857</ele><time>2026-03-30T13:36:28Z</time></trkpt><trkpt lat="41.850141061185575" lon="0.30136032885643843"><ele>273.8571428571429</ele><time>2026-03-30T13:36:29Z</time></trkpt><trkpt lat="41.85013496530646" lon="0.30127397447948095"><ele>274.0</ele><time>2026-03-30T13:36:30Z</time></trkpt><trkpt lat="41.85012607386619" lon="0.30116383266965535"><ele>274.0</ele><time>2026-03-30T13:36:31Z</time></trkpt><trkpt lat="41.850117206296794" lon="0.30104650859316495"><ele>274.0</ele><time>2026-03-30T13:36:32Z</time></trkpt><trkpt lat="41.85010981648311" lon="0.3009305969374132"><ele>274.0</ele><time>2026-03-30T13:36:33Z</time></trkpt><trkpt lat="41.850103761536246" lon="0.30080905108615813"><ele>274.0</ele><time>2026-03-30T13:36:34Z</time></trkpt><trkpt lat="41.85009895494307" lon="0.30068144292593235"><ele>274.0</ele><time>2026-03-30T13:36:35Z</time></trkpt><trkpt lat="41.85009734463415" lon="0.3005507138868987"><ele>274.2</ele><time>2026-03-30T13:36:36Z</time></trkpt><trkpt lat="41.850095554708474" lon="0.3004153861173094"><ele>274.4</ele><time>2026-03-30T13:36:37Z</time></trkpt><trkpt lat="41.850094769085196" lon="0.30027842692274687"><ele>274.6</ele><time>2026-03-30T13:36:38Z</time></trkpt><trkpt lat="41.850096810725944" lon="0.3001414247498526"><ele>274.8</ele><time>2026-03-30T13:36:39Z</time></trkpt><trkpt lat="41.8501061098186" lon="0.3000014160887791"><ele>275.0</ele><time>2026-03-30T13:36:40Z</time></trkpt><trkpt lat="41.85012247112888" lon="0.29986005355358786"><ele>274.75</ele><time>2026-03-30T13:36:41Z</time></trkpt><trkpt lat="41.85014586090748" lon="0.2997147743361929"><ele>274.5</ele><time>2026-03-30T13:36:42Z</time></trkpt><trkpt lat="41.850169322356244" lon="0.2995671938991148"><ele>274.25</ele><time>2026-03-30T13:36:43Z</time></trkpt><trkpt lat="41.850200854207436" lon="0.29941141230535645"><ele>274.0</ele><time>2026-03-30T13:36:44Z</time></trkpt><trkpt lat="41.850238993930816" lon="0.29925237303929336"><ele>274.0</ele><time>2026-03-30T13:36:45Z</time></trkpt><trkpt lat="41.850277347256096" lon="0.29908875277124874"><ele>274.0</ele><time>2026-03-30T13:36:46Z</time></trkpt><trkpt lat="41.850315380145005" lon="0.2989297258227628"><ele>274.0</ele><time>2026-03-30T13:36:47Z</time></trkpt><trkpt lat="41.85035000950872" lon="0.29878082547144735"><ele>274.0</ele><time>2026-03-30T13:36:48Z</time></trkpt><trkpt lat="41.85038536337773" lon="0.2986337591501755"><ele>274.2</ele><time>2026-03-30T13:36:49Z</time></trkpt><trkpt lat="41.85042365705188" lon="0.2984833061941287"><ele>274.4</ele><time>2026-03-30T13:36:50Z</time></trkpt><trkpt lat="41.85045486632305" lon="0.2983514059438217"><ele>274.6</ele><time>2026-03-30T13:36:51Z</time></trkpt><trkpt lat="41.85048535842062" lon="0.2982251006541284"><ele>274.8</ele><time>2026-03-30T13:36:52Z</time></trkpt><trkpt lat="41.85051069509465" lon="0.2981153170826349"><ele>275.0</ele><time>2026-03-30T13:36:53Z</time></trkpt><trkpt lat="41.850536853201724" lon="0.2980058866148665"><ele>275.6</ele><time>2026-03-30T13:36:54Z</time></trkpt><trkpt lat="41.850558295219" lon="0.2979108413522675"><ele>276.2</ele><time>2026-03-30T13:36:55Z</time></trkpt><trkpt lat="41.850577923530935" lon="0.2978234272966848"><ele>276.8</ele><time>2026-03-30T13:36:56Z</time></trkpt><trkpt lat="41.85061494194698" lon="0.29765982755708753"><ele>277.4</ele><time>2026-03-30T13:36:58Z</time></trkpt><trkpt lat="41.850639993903705" lon="0.29755137773317913"><ele>278.0</ele><time>2026-03-30T13:36:59Z</time></trkpt><trkpt lat="41.85067117027627" lon="0.29742096941833507"><ele>278.0</ele><time>2026-03-30T13:37:00Z</time></trkpt><trkpt lat="41.850700083907554" lon="0.2972975698802539"><ele>278.0</ele><time>2026-03-30T13:37:01Z</time></trkpt><trkpt lat="41.85072367532475" lon="0.29719968011130876"><ele>278.0</ele><time>2026-03-30T13:37:02Z</time></trkpt><trkpt lat="41.850744935853996" lon="0.2971126402469887"><ele>278.0</ele><time>2026-03-30T13:37:03Z</time></trkpt><trkpt lat="41.85076336079721" lon="0.2970259751384414"><ele>278.0</ele><time>2026-03-30T13:37:04Z</time></trkpt><trkpt lat="41.850783800986015" lon="0.29692939126391377"><ele>278.0</ele><time>2026-03-30T13:37:05Z</time></trkpt><trkpt lat="41.85080758954963" lon="0.2968301401281204"><ele>278.33333333333337</ele><time>2026-03-30T13:37:06Z</time></trkpt><trkpt lat="41.8508339472662" lon="0.2967242261611107"><ele>278.6666666666667</ele><time>2026-03-30T13:37:07Z</time></trkpt><trkpt lat="41.85086161807749" lon="0.2966123269372969"><ele>279.0</ele><time>2026-03-30T13:37:08Z</time></trkpt><trkpt lat="41.85089038251966" lon="0.296495656356315"><ele>279.3333333333333</ele><time>2026-03-30T13:37:09Z</time></trkpt><trkpt lat="41.8509157697187" lon="0.2963997749312419"><ele>279.66666666666663</ele><time>2026-03-30T13:37:10Z</time></trkpt><trkpt lat="41.85093868884197" lon="0.29631131441207315"><ele>280.0</ele><time>2026-03-30T13:37:11Z</time></trkpt><trkpt lat="41.85096267401013" lon="0.29621613104680705"><ele>280.5</ele><time>2026-03-30T13:37:12Z</time></trkpt><trkpt lat="41.850986216295205" lon="0.2961179803752756"><ele>281.0</ele><time>2026-03-30T13:37:13Z</time></trkpt><trkpt lat="41.851008282616036" lon="0.29602855659876126"><ele>281.5</ele><time>2026-03-30T13:37:14Z</time></trkpt><trkpt lat="41.85102453926975" lon="0.29594075685061483"><ele>282.0</ele><time>2026-03-30T13:37:15Z</time></trkpt><trkpt lat="41.85104521052267" lon="0.2958607523285385"><ele>282.5</ele><time>2026-03-30T13:37:16Z</time></trkpt><trkpt lat="41.851076752288094" lon="0.2957184787580818"><ele>283.0</ele><time>2026-03-30T13:37:18Z</time></trkpt><trkpt lat="41.851106913216405" lon="0.2955673939644715"><ele>283.2857142857143</ele><time>2026-03-30T13:37:20Z</time></trkpt><trkpt lat="41.85112520385504" lon="0.2954861423850163"><ele>283.5714285714286</ele><time>2026-03-30T13:37:21Z</time></trkpt><trkpt lat="41.851147692525295" lon="0.2953950579621908"><ele>283.8571428571429</ele><time>2026-03-30T13:37:22Z</time></trkpt><trkpt lat="41.851171381001" lon="0.2952959756753053"><ele>284.14285714285717</ele><time>2026-03-30T13:37:23Z</time></trkpt><trkpt lat="41.85119221211143" lon="0.2952016450568621"><ele>284.42857142857144</ele><time>2026-03-30T13:37:24Z</time></trkpt><trkpt lat="41.851213513820326" lon="0.29511416967823956"><ele>284.7142857142857</ele><time>2026-03-30T13:37:25Z</time></trkpt><trkpt lat="41.85123100486012" lon="0.29503249922617136"><ele>285.0</ele><time>2026-03-30T13:37:26Z</time></trkpt><trkpt lat="41.851266560071885" lon="0.29488198005328886"><ele>285.0</ele><time>2026-03-30T13:37:28Z</time></trkpt><trkpt lat="41.851296890295274" lon="0.2947559002884845"><ele>285.0</ele><time>2026-03-30T13:37:30Z</time></trkpt><trkpt lat="41.851330345390565" lon="0.29460780581157464"><ele>285.0</ele><time>2026-03-30T13:37:32Z</time></trkpt><trkpt lat="41.85134885642192" lon="0.2945240713004804"><ele>285.0</ele><time>2026-03-30T13:37:33Z</time></trkpt><trkpt lat="41.85138070479147" lon="0.29439909261155167"><ele>285.0</ele><time>2026-03-30T13:37:35Z</time></trkpt><trkpt lat="41.851399166036785" lon="0.29427165248466086"><ele>285.0</ele><time>2026-03-30T13:37:37Z</time></trkpt><trkpt lat="41.851406162188056" lon="0.2941734989892793"><ele>285.0</ele><time>2026-03-30T13:37:38Z</time></trkpt><trkpt lat="41.851422220958014" lon="0.2940007267032648"><ele>285.0</ele><time>2026-03-30T13:37:40Z</time></trkpt><trkpt lat="41.85143295645169" lon="0.2939123224506722"><ele>285.0</ele><time>2026-03-30T13:37:41Z</time></trkpt><trkpt lat="41.85145206148112" lon="0.29382042321278495"><ele>285.0</ele><time>2026-03-30T13:37:42Z</time></trkpt><trkpt lat="41.85147783485652" lon="0.2937344818573164"><ele>285.0</ele><time>2026-03-30T13:37:43Z</time></trkpt><trkpt lat="41.85152025077072" lon="0.29358936051019147"><ele>285.1666666666667</ele><time>2026-03-30T13:37:45Z</time></trkpt><trkpt lat="41.85154795403176" lon="0.2934625639912447"><ele>285.3333333333333</ele><time>2026-03-30T13:37:47Z</time></trkpt><trkpt lat="41.85153711498052" lon="0.2933755876130382"><ele>285.5</ele><time>2026-03-30T13:37:53Z</time></trkpt><trkpt lat="41.851479781917874" lon="0.29327552705037524"><ele>285.66666666666663</ele><time>2026-03-30T13:37:56Z</time></trkpt><trkpt lat="41.85143040959477" lon="0.2932007893692509"><ele>285.8333333333333</ele><time>2026-03-30T13:37:58Z</time></trkpt><trkpt lat="41.85144860474901" lon="0.2930878245689093"><ele>286.0</ele><time>2026-03-30T13:38:00Z</time></trkpt><trkpt lat="41.85148316445064" lon="0.29301709835133577"><ele>286.40000000000003</ele><time>2026-03-30T13:38:01Z</time></trkpt><trkpt lat="41.85152984375171" lon="0.2929337491490862"><ele>286.8</ele><time>2026-03-30T13:38:02Z</time></trkpt><trkpt lat="41.851572441557735" lon="0.29285579662512173"><ele>287.20000000000005</ele><time>2026-03-30T13:38:03Z</time></trkpt><trkpt lat="41.85163865742858" lon="0.2927227027116079"><ele>287.6</ele><time>2026-03-30T13:38:05Z</time></trkpt><trkpt lat="41.85171382342362" lon="0.2925891325747382"><ele>288.0</ele><time>2026-03-30T13:38:07Z</time></trkpt><trkpt lat="41.85177790697959" lon="0.2924639669484326"><ele>287.6666666666667</ele><time>2026-03-30T13:38:09Z</time></trkpt><trkpt lat="41.851832530673775" lon="0.29236809842548356"><ele>287.3333333333333</ele><time>2026-03-30T13:38:11Z</time></trkpt><trkpt lat="41.8518750159687" lon="0.2922836836250592"><ele>287.0</ele><time>2026-03-30T13:38:13Z</time></trkpt><trkpt lat="41.85192258437756" lon="0.2921739378485074"><ele>286.66666666666663</ele><time>2026-03-30T13:38:15Z</time></trkpt><trkpt lat="41.851956100941365" lon="0.29209327399494883"><ele>286.3333333333333</ele><time>2026-03-30T13:38:16Z</time></trkpt><trkpt lat="41.85199026602414" lon="0.2920138750641339"><ele>286.0</ele><time>2026-03-30T13:38:17Z</time></trkpt><trkpt lat="41.85204409646383" lon="0.29186281024439864"><ele>285.8333333333333</ele><time>2026-03-30T13:38:19Z</time></trkpt><trkpt lat="41.852086324305496" lon="0.29179167645414733"><ele>285.66666666666663</ele><time>2026-03-30T13:38:20Z</time></trkpt><trkpt lat="41.85213163063591" lon="0.2917128798220735"><ele>285.5</ele><time>2026-03-30T13:38:21Z</time></trkpt><trkpt lat="41.85218165989385" lon="0.29163188842304893"><ele>285.3333333333333</ele><time>2026-03-30T13:38:22Z</time></trkpt><trkpt lat="41.852220069058866" lon="0.29156452635064534"><ele>285.1666666666667</ele><time>2026-03-30T13:38:23Z</time></trkpt><trkpt lat="41.85227590820652" lon="0.29146269204853537"><ele>285.0</ele><time>2026-03-30T13:38:25Z</time></trkpt><trkpt lat="41.85231245748506" lon="0.29137397931973796"><ele>285.0</ele><time>2026-03-30T13:38:27Z</time></trkpt><trkpt lat="41.85235108236659" lon="0.2912852725885791"><ele>285.0</ele><time>2026-03-30T13:38:29Z</time></trkpt><trkpt lat="41.85243041498756" lon="0.291171455708226"><ele>285.0</ele><time>2026-03-30T13:38:31Z</time></trkpt><trkpt lat="41.85247766310907" lon="0.29108820935788476"><ele>285.0</ele><time>2026-03-30T13:38:32Z</time></trkpt><trkpt lat="41.85252199843253" lon="0.2910083615979271"><ele>285.0</ele><time>2026-03-30T13:38:33Z</time></trkpt><trkpt lat="41.852557988865584" lon="0.29093615634015874"><ele>285.0</ele><time>2026-03-30T13:38:34Z</time></trkpt><trkpt lat="41.852606529525595" lon="0.2908058074470812"><ele>285.2</ele><time>2026-03-30T13:38:36Z</time></trkpt><trkpt lat="41.85264878562843" lon="0.29068826606142545"><ele>285.4</ele><time>2026-03-30T13:38:38Z</time></trkpt><trkpt lat="41.85268051889527" lon="0.2905694264037772"><ele>285.6</ele><time>2026-03-30T13:38:40Z</time></trkpt><trkpt lat="41.852714677596516" lon="0.29041086797680443"><ele>285.8</ele><time>2026-03-30T13:38:42Z</time></trkpt><trkpt lat="41.85273643608277" lon="0.29025354212673177"><ele>286.0</ele><time>2026-03-30T13:38:44Z</time></trkpt><trkpt lat="41.852767709587795" lon="0.2901706244203177"><ele>286.0</ele><time>2026-03-30T13:38:45Z</time></trkpt><trkpt lat="41.85278898358385" lon="0.2900744806839691"><ele>286.0</ele><time>2026-03-30T13:38:46Z</time></trkpt><trkpt lat="41.85281766841374" lon="0.28998256151195945"><ele>286.0</ele><time>2026-03-30T13:38:47Z</time></trkpt><trkpt lat="41.85284206157284" lon="0.2898864529800511"><ele>286.0</ele><time>2026-03-30T13:38:48Z</time></trkpt><trkpt lat="41.85285758006238" lon="0.2897983190107126"><ele>286.0</ele><time>2026-03-30T13:38:50Z</time></trkpt><trkpt lat="41.85289670151621" lon="0.28968575629392906"><ele>286.0</ele><time>2026-03-30T13:38:53Z</time></trkpt><trkpt lat="41.85293457923103" lon="0.28954026942442307"><ele>286.0</ele><time>2026-03-30T13:38:55Z</time></trkpt><trkpt lat="41.85289645005753" lon="0.2894473715699131"><ele>286.0</ele><time>2026-03-30T13:38:56Z</time></trkpt><trkpt lat="41.8528912347835" lon="0.28934732720207185"><ele>286.0</ele><time>2026-03-30T13:38:58Z</time></trkpt><trkpt lat="41.85297030223946" lon="0.2892141707521103"><ele>286.0</ele><time>2026-03-30T13:39:01Z</time></trkpt><trkpt lat="41.853041376444196" lon="0.28914358602897294"><ele>286.0</ele><time>2026-03-30T13:39:02Z</time></trkpt><trkpt lat="41.85309593739803" lon="0.2890717689864752"><ele>286.0</ele><time>2026-03-30T13:39:03Z</time></trkpt><trkpt lat="41.853188495592114" lon="0.2889387962878204"><ele>285.8</ele><time>2026-03-30T13:39:05Z</time></trkpt><trkpt lat="41.85326333319031" lon="0.2888421733813104"><ele>285.6</ele><time>2026-03-30T13:39:06Z</time></trkpt><trkpt lat="41.85333805001283" lon="0.28872957899618795"><ele>285.4</ele><time>2026-03-30T13:39:07Z</time></trkpt><trkpt lat="41.85339726395223" lon="0.28862008838482456"><ele>285.2</ele><time>2026-03-30T13:39:08Z</time></trkpt><trkpt lat="41.85345002110553" lon="0.28849180114544204"><ele>285.0</ele><time>2026-03-30T13:39:09Z</time></trkpt><trkpt lat="41.85348884904367" lon="0.2883550542905822"><ele>285.6</ele><time>2026-03-30T13:39:10Z</time></trkpt><trkpt lat="41.85351362159914" lon="0.28822968251630704"><ele>286.2</ele><time>2026-03-30T13:39:11Z</time></trkpt><trkpt lat="41.8535257257106" lon="0.28808883135460106"><ele>286.8</ele><time>2026-03-30T13:39:12Z</time></trkpt><trkpt lat="41.85352599538825" lon="0.2879571920872021"><ele>287.4</ele><time>2026-03-30T13:39:13Z</time></trkpt><trkpt lat="41.8535325378763" lon="0.2878210247660508"><ele>288.0</ele><time>2026-03-30T13:39:14Z</time></trkpt><trkpt lat="41.85353734894112" lon="0.28767929466169584"><ele>288.0</ele><time>2026-03-30T13:39:15Z</time></trkpt><trkpt lat="41.85354591081454" lon="0.28752243641290404"><ele>288.0</ele><time>2026-03-30T13:39:16Z</time></trkpt><trkpt lat="41.853553657913444" lon="0.2873578127479883"><ele>288.0</ele><time>2026-03-30T13:39:17Z</time></trkpt><trkpt lat="41.853572578743474" lon="0.28717981329049447"><ele>288.0</ele><time>2026-03-30T13:39:18Z</time></trkpt><trkpt lat="41.85361126858467" lon="0.28698968016668336"><ele>288.0</ele><time>2026-03-30T13:39:19Z</time></trkpt><trkpt lat="41.85367316243539" lon="0.28679343313727856"><ele>288.0</ele><time>2026-03-30T13:39:20Z</time></trkpt><trkpt lat="41.85373614926991" lon="0.2866334416927008"><ele>288.0</ele><time>2026-03-30T13:39:21Z</time></trkpt><trkpt lat="41.853789049567084" lon="0.2864872432063632"><ele>288.0</ele><time>2026-03-30T13:39:22Z</time></trkpt><trkpt lat="41.853840611679225" lon="0.2863214789465799"><ele>288.0</ele><time>2026-03-30T13:39:23Z</time></trkpt><trkpt lat="41.853903557622246" lon="0.28613408032354287"><ele>288.0</ele><time>2026-03-30T13:39:24Z</time></trkpt><trkpt lat="41.85397071711537" lon="0.28594428186420034"><ele>288.0</ele><time>2026-03-30T13:39:25Z</time></trkpt><trkpt lat="41.85403729988993" lon="0.2857600313544044"><ele>287.25</ele><time>2026-03-30T13:39:26Z</time></trkpt><trkpt lat="41.85409875202269" lon="0.28558098429534606"><ele>286.5</ele><time>2026-03-30T13:39:27Z</time></trkpt><trkpt lat="41.854155256922176" lon="0.28540383009623266"><ele>285.75</ele><time>2026-03-30T13:39:28Z</time></trkpt><trkpt lat="41.854214025087416" lon="0.28522709761111753"><ele>285.0</ele><time>2026-03-30T13:39:29Z</time></trkpt><trkpt lat="41.854272909585326" lon="0.28505415836812786"><ele>286.75</ele><time>2026-03-30T13:39:30Z</time></trkpt><trkpt lat="41.85432624586074" lon="0.284892210389399"><ele>288.5</ele><time>2026-03-30T13:39:31Z</time></trkpt><trkpt lat="41.854375547982045" lon="0.2847502143715384"><ele>290.25</ele><time>2026-03-30T13:39:32Z</time></trkpt><trkpt lat="41.8544212132402" lon="0.2846197420214685"><ele>292.0</ele><time>2026-03-30T13:39:33Z</time></trkpt><trkpt lat="41.8544640571763" lon="0.28448192300830355"><ele>292.8</ele><time>2026-03-30T13:39:34Z</time></trkpt><trkpt lat="41.85450676348101" lon="0.28434161168912014"><ele>293.6</ele><time>2026-03-30T13:39:35Z</time></trkpt><trkpt lat="41.854553948105256" lon="0.2842027890009647"><ele>294.40000000000003</ele><time>2026-03-30T13:39:36Z</time></trkpt><trkpt lat="41.85460531111469" lon="0.28406978010309786"><ele>295.2</ele><time>2026-03-30T13:39:37Z</time></trkpt><trkpt lat="41.85465088788214" lon="0.2839417858439144"><ele>296.0</ele><time>2026-03-30T13:39:38Z</time></trkpt><trkpt lat="41.854688627121085" lon="0.28382532032639446"><ele>296.0</ele><time>2026-03-30T13:39:39Z</time></trkpt><trkpt lat="41.85472422091177" lon="0.2837094161430417"><ele>296.0</ele><time>2026-03-30T13:39:40Z</time></trkpt><trkpt lat="41.8547609763643" lon="0.2835917325241854"><ele>296.0</ele><time>2026-03-30T13:39:41Z</time></trkpt><trkpt lat="41.854797198149456" lon="0.2834746027831284"><ele>296.0</ele><time>2026-03-30T13:39:42Z</time></trkpt><trkpt lat="41.854831727476" lon="0.2833463544452729"><ele>296.0</ele><time>2026-03-30T13:39:43Z</time></trkpt><trkpt lat="41.8548721524256" lon="0.2832129033626097"><ele>295.5</ele><time>2026-03-30T13:39:44Z</time></trkpt><trkpt lat="41.854922835856435" lon="0.2830726980977857"><ele>295.0</ele><time>2026-03-30T13:39:45Z</time></trkpt><trkpt lat="41.85497880071441" lon="0.2829264061450138"><ele>294.5</ele><time>2026-03-30T13:39:46Z</time></trkpt><trkpt lat="41.85503668267091" lon="0.2827676049932701"><ele>294.0</ele><time>2026-03-30T13:39:47Z</time></trkpt><trkpt lat="41.855099805794445" lon="0.2825912293452492"><ele>296.0</ele><time>2026-03-30T13:39:48Z</time></trkpt><trkpt lat="41.855162445732354" lon="0.28241267083721844"><ele>298.0</ele><time>2026-03-30T13:39:49Z</time></trkpt><trkpt lat="41.85522736071505" lon="0.2822203618529109"><ele>300.0</ele><time>2026-03-30T13:39:50Z</time></trkpt><trkpt lat="41.85529836168953" lon="0.2820166158329284"><ele>300.0</ele><time>2026-03-30T13:39:51Z</time></trkpt><trkpt lat="41.85537510390775" lon="0.28179498257718877"><ele>300.0</ele><time>2026-03-30T13:39:52Z</time></trkpt><trkpt lat="41.855448577452215" lon="0.28158236754568"><ele>300.0</ele><time>2026-03-30T13:39:53Z</time></trkpt><trkpt lat="41.85551712424297" lon="0.281365498081002"><ele>299.6666666666667</ele><time>2026-03-30T13:39:54Z</time></trkpt><trkpt lat="41.855591680660204" lon="0.28115442389008594"><ele>299.33333333333337</ele><time>2026-03-30T13:39:55Z</time></trkpt><trkpt lat="41.85566767851989" lon="0.2809505976154182"><ele>299.0</ele><time>2026-03-30T13:39:56Z</time></trkpt><trkpt lat="41.85575208493446" lon="0.2807600672734528"><ele>299.0</ele><time>2026-03-30T13:39:57Z</time></trkpt><trkpt lat="41.8558695321429" lon="0.2806204846384548"><ele>299.0</ele><time>2026-03-30T13:39:58Z</time></trkpt><trkpt lat="41.85601123286179" lon="0.2805266505060199"><ele>299.0</ele><time>2026-03-30T13:39:59Z</time></trkpt><trkpt lat="41.856166814306356" lon="0.2804755582652573"><ele>298.8</ele><time>2026-03-30T13:40:00Z</time></trkpt><trkpt lat="41.85630408961243" lon="0.28047899778980545"><ele>298.59999999999997</ele><time>2026-03-30T13:40:01Z</time></trkpt><trkpt lat="41.85641527210012" lon="0.2804816933643797"><ele>298.4</ele><time>2026-03-30T13:40:02Z</time></trkpt><trkpt lat="41.856515605758666" lon="0.2804739349787959"><ele>298.2</ele><time>2026-03-30T13:40:03Z</time></trkpt><trkpt lat="41.856605714607625" lon="0.2804788860913377"><ele>298.0</ele><time>2026-03-30T13:40:04Z</time></trkpt><trkpt lat="41.85669376239651" lon="0.2805224707983942"><ele>299.0</ele><time>2026-03-30T13:40:05Z</time></trkpt><trkpt lat="41.856797925829426" lon="0.28054373867325816"><ele>300.0</ele><time>2026-03-30T13:40:06Z</time></trkpt><trkpt lat="41.85691434766406" lon="0.28050397116348114"><ele>301.0</ele><time>2026-03-30T13:40:07Z</time></trkpt><trkpt lat="41.856997554195665" lon="0.2803847413148289"><ele>302.0</ele><time>2026-03-30T13:40:08Z</time></trkpt><trkpt lat="41.85704230585347" lon="0.2802390621720723"><ele>302.0</ele><time>2026-03-30T13:40:09Z</time></trkpt><trkpt lat="41.85704177272985" lon="0.28008731626458644"><ele>302.0</ele><time>2026-03-30T13:40:10Z</time></trkpt><trkpt lat="41.85699626234578" lon="0.2799481035982644"><ele>302.0</ele><time>2026-03-30T13:40:11Z</time></trkpt><trkpt lat="41.85691113047419" lon="0.27985124851551446"><ele>302.0</ele><time>2026-03-30T13:40:12Z</time></trkpt><trkpt lat="41.85680206217497" lon="0.2798153678762155"><ele>301.2</ele><time>2026-03-30T13:40:13Z</time></trkpt><trkpt lat="41.85670293321178" lon="0.2798298286241561"><ele>300.4</ele><time>2026-03-30T13:40:14Z</time></trkpt><trkpt lat="41.85661519627321" lon="0.2798607398585013"><ele>299.6</ele><time>2026-03-30T13:40:15Z</time></trkpt><trkpt lat="41.85652757904335" lon="0.27988105417910475"><ele>298.8</ele><time>2026-03-30T13:40:16Z</time></trkpt><trkpt lat="41.85643539679638" lon="0.279854028536985"><ele>298.0</ele><time>2026-03-30T13:40:17Z</time></trkpt><trkpt lat="41.856364195389" lon="0.27973745638264247"><ele>298.0</ele><time>2026-03-30T13:40:18Z</time></trkpt><trkpt lat="41.85627823859447" lon="0.2796443423281009"><ele>298.0</ele><time>2026-03-30T13:40:19Z</time></trkpt><trkpt lat="41.85619408536006" lon="0.27957001670254"><ele>298.0</ele><time>2026-03-30T13:40:20Z</time></trkpt><trkpt lat="41.856132004468826" lon="0.27949672006974385"><ele>298.0</ele><time>2026-03-30T13:40:21Z</time></trkpt><trkpt lat="41.8560756571123" lon="0.2794339640518586"><ele>298.0</ele><time>2026-03-30T13:40:22Z</time></trkpt><trkpt lat="41.85598745059618" lon="0.279328483316065"><ele>297.75</ele><time>2026-03-30T13:40:24Z</time></trkpt><trkpt lat="41.855900691165004" lon="0.2792100351982657"><ele>297.5</ele><time>2026-03-30T13:40:26Z</time></trkpt><trkpt lat="41.855853551440404" lon="0.27909318447086645"><ele>297.25</ele><time>2026-03-30T13:40:28Z</time></trkpt><trkpt lat="41.85584213865116" lon="0.27892526965966485"><ele>297.0</ele><time>2026-03-30T13:40:30Z</time></trkpt><trkpt lat="41.85582227217278" lon="0.27877227330768806"><ele>297.4</ele><time>2026-03-30T13:40:32Z</time></trkpt><trkpt lat="41.85574439912166" lon="0.2786495089663031"><ele>297.79999999999995</ele><time>2026-03-30T13:40:34Z</time></trkpt><trkpt lat="41.85569828520782" lon="0.27858318180517244"><ele>298.2</ele><time>2026-03-30T13:40:35Z</time></trkpt><trkpt lat="41.8557405157124" lon="0.2784254961957601"><ele>298.59999999999997</ele><time>2026-03-30T13:40:37Z</time></trkpt><trkpt lat="41.85581630285029" lon="0.27839506474996045"><ele>299.0</ele><time>2026-03-30T13:40:38Z</time></trkpt><trkpt lat="41.85589999851742" lon="0.2784397756946231"><ele>299.25</ele><time>2026-03-30T13:40:39Z</time></trkpt><trkpt lat="41.856001866644206" lon="0.27847593071476184"><ele>299.5</ele><time>2026-03-30T13:40:40Z</time></trkpt><trkpt lat="41.85610719680789" lon="0.2785312660216481"><ele>299.75</ele><time>2026-03-30T13:40:41Z</time></trkpt><trkpt lat="41.85623917425949" lon="0.2785440641426906"><ele>300.0</ele><time>2026-03-30T13:40:42Z</time></trkpt><trkpt lat="41.85637869798312" lon="0.27850964997580185"><ele>300.0</ele><time>2026-03-30T13:40:43Z</time></trkpt><trkpt lat="41.856514374454854" lon="0.27843492745562376"><ele>300.0</ele><time>2026-03-30T13:40:44Z</time></trkpt><trkpt lat="41.8566519080478" lon="0.2783230914268456"><ele>300.0</ele><time>2026-03-30T13:40:45Z</time></trkpt><trkpt lat="41.85679102820055" lon="0.27819490296133"><ele>299.6666666666667</ele><time>2026-03-30T13:40:46Z</time></trkpt><trkpt lat="41.85693097807642" lon="0.2780556523554458"><ele>299.33333333333337</ele><time>2026-03-30T13:40:47Z</time></trkpt><trkpt lat="41.85706758699182" lon="0.2778991380068034"><ele>299.0</ele><time>2026-03-30T13:40:48Z</time></trkpt><trkpt lat="41.85719215467888" lon="0.2777236116123347"><ele>299.0</ele><time>2026-03-30T13:40:49Z</time></trkpt><trkpt lat="41.857314963341416" lon="0.27753911483375415"><ele>299.0</ele><time>2026-03-30T13:40:50Z</time></trkpt><trkpt lat="41.85743666516674" lon="0.27733981407915803"><ele>299.0</ele><time>2026-03-30T13:40:51Z</time></trkpt><trkpt lat="41.857560933795334" lon="0.2771339460826718"><ele>300.0</ele><time>2026-03-30T13:40:52Z</time></trkpt><trkpt lat="41.857693780135335" lon="0.27692083588782457"><ele>301.0</ele><time>2026-03-30T13:40:53Z</time></trkpt><trkpt lat="41.85783684333068" lon="0.2766860516195596"><ele>302.0</ele><time>2026-03-30T13:40:54Z</time></trkpt><trkpt lat="41.85799492637184" lon="0.2764239646966503"><ele>304.5</ele><time>2026-03-30T13:40:55Z</time></trkpt><trkpt lat="41.85816801169348" lon="0.27613597629880426"><ele>307.0</ele><time>2026-03-30T13:40:56Z</time></trkpt><trkpt lat="41.85835026460269" lon="0.27582325618066555"><ele>309.0</ele><time>2026-03-30T13:40:57Z</time></trkpt><trkpt lat="41.858539685595105" lon="0.2755027584308058"><ele>311.0</ele><time>2026-03-30T13:40:58Z</time></trkpt><trkpt lat="41.85871330373708" lon="0.2752069702196139"><ele>311.0</ele><time>2026-03-30T13:40:59Z</time></trkpt><trkpt lat="41.85887423064311" lon="0.2749212898757453"><ele>311.0</ele><time>2026-03-30T13:41:00Z</time></trkpt><trkpt lat="41.85902636782334" lon="0.27464907827901075"><ele>312.0</ele><time>2026-03-30T13:41:01Z</time></trkpt><trkpt lat="41.85917125193006" lon="0.2743817264307338"><ele>313.0</ele><time>2026-03-30T13:41:02Z</time></trkpt><trkpt lat="41.85931152439716" lon="0.2741222485477886"><ele>312.5</ele><time>2026-03-30T13:41:03Z</time></trkpt><trkpt lat="41.85945151996713" lon="0.27386624909811724"><ele>312.0</ele><time>2026-03-30T13:41:04Z</time></trkpt><trkpt lat="41.85958526947829" lon="0.273605141781115"><ele>312.0</ele><time>2026-03-30T13:41:05Z</time></trkpt><trkpt lat="41.85972394850579" lon="0.27335802059960845"><ele>312.0</ele><time>2026-03-30T13:41:06Z</time></trkpt><trkpt lat="41.85986090231852" lon="0.27310503951467496"><ele>312.0</ele><time>2026-03-30T13:41:07Z</time></trkpt><trkpt lat="41.86000013377299" lon="0.2728461881660985"><ele>312.0</ele><time>2026-03-30T13:41:08Z</time></trkpt><trkpt lat="41.86014484668129" lon="0.27258289780046957"><ele>312.0</ele><time>2026-03-30T13:41:09Z</time></trkpt><trkpt lat="41.86028754123345" lon="0.27231451220197306"><ele>312.0</ele><time>2026-03-30T13:41:10Z</time></trkpt><trkpt lat="41.86043363418614" lon="0.2720408319778633"><ele>313.5</ele><time>2026-03-30T13:41:11Z</time></trkpt><trkpt lat="41.8605793867808" lon="0.27176151021089046"><ele>315.0</ele><time>2026-03-30T13:41:12Z</time></trkpt><trkpt lat="41.86072649253163" lon="0.2714796120586479"><ele>316.0</ele><time>2026-03-30T13:41:13Z</time></trkpt><trkpt lat="41.86087597730546" lon="0.27119368093932283"><ele>317.0</ele><time>2026-03-30T13:41:14Z</time></trkpt><trkpt lat="41.86102530738891" lon="0.27090465746608267"><ele>317.5</ele><time>2026-03-30T13:41:15Z</time></trkpt><trkpt lat="41.86117272141612" lon="0.2706181860563522"><ele>318.0</ele><time>2026-03-30T13:41:16Z</time></trkpt><trkpt lat="41.86131915563552" lon="0.27033009987628376"><ele>319.5</ele><time>2026-03-30T13:41:17Z</time></trkpt><trkpt lat="41.86148340519608" lon="0.2700593570849307"><ele>321.0</ele><time>2026-03-30T13:41:18Z</time></trkpt><trkpt lat="41.86163554742194" lon="0.2697748966553446"><ele>321.5</ele><time>2026-03-30T13:41:19Z</time></trkpt><trkpt lat="41.861785835722536" lon="0.26949390254196326"><ele>322.0</ele><time>2026-03-30T13:41:20Z</time></trkpt><trkpt lat="41.86192471434942" lon="0.26920451942182155"><ele>324.0</ele><time>2026-03-30T13:41:21Z</time></trkpt><trkpt lat="41.86207732996677" lon="0.2689300373603234"><ele>326.0</ele><time>2026-03-30T13:41:22Z</time></trkpt><trkpt lat="41.86222934355709" lon="0.2686571477059279"><ele>326.0</ele><time>2026-03-30T13:41:23Z</time></trkpt><trkpt lat="41.8623811169821" lon="0.2683853429896939"><ele>326.0</ele><time>2026-03-30T13:41:24Z</time></trkpt><trkpt lat="41.862546885022326" lon="0.26813014930469964"><ele>324.0</ele><time>2026-03-30T13:41:25Z</time></trkpt><trkpt lat="41.86269296053887" lon="0.2678418671557812"><ele>322.0</ele><time>2026-03-30T13:41:26Z</time></trkpt><trkpt lat="41.86287132778326" lon="0.2675705070150526"><ele>322.0</ele><time>2026-03-30T13:41:27Z</time></trkpt><trkpt lat="41.86303442611097" lon="0.267292286763113"><ele>322.0</ele><time>2026-03-30T13:41:28Z</time></trkpt><trkpt lat="41.86319010233626" lon="0.2670004032205536"><ele>323.5</ele><time>2026-03-30T13:41:29Z</time></trkpt><trkpt lat="41.86335711309932" lon="0.26672379372074473"><ele>325.0</ele><time>2026-03-30T13:41:30Z</time></trkpt><trkpt lat="41.863524324387505" lon="0.2664435405500856"><ele>325.0</ele><time>2026-03-30T13:41:31Z</time></trkpt><trkpt lat="41.86369399629348" lon="0.2661664981251532"><ele>325.0</ele><time>2026-03-30T13:41:32Z</time></trkpt><trkpt lat="41.86386373454505" lon="0.26589127438515925"><ele>325.0</ele><time>2026-03-30T13:41:33Z</time></trkpt><trkpt lat="41.8640329247994" lon="0.26561907010923475"><ele>325.0</ele><time>2026-03-30T13:41:34Z</time></trkpt><trkpt lat="41.864204159608256" lon="0.2653496911675557"><ele>325.5</ele><time>2026-03-30T13:41:35Z</time></trkpt><trkpt lat="41.864372831121145" lon="0.2650799346012477"><ele>326.0</ele><time>2026-03-30T13:41:36Z</time></trkpt><trkpt lat="41.86454154508097" lon="0.2648127094770207"><ele>328.0</ele><time>2026-03-30T13:41:37Z</time></trkpt><trkpt lat="41.86470917251149" lon="0.2645431253269742"><ele>330.0</ele><time>2026-03-30T13:41:38Z</time></trkpt><trkpt lat="41.86487647532077" lon="0.2642759292717519"><ele>330.0</ele><time>2026-03-30T13:41:39Z</time></trkpt><trkpt lat="41.86504495358149" lon="0.2640067105598266"><ele>330.0</ele><time>2026-03-30T13:41:40Z</time></trkpt><trkpt lat="41.86521552349789" lon="0.263738760229447"><ele>331.0</ele><time>2026-03-30T13:41:41Z</time></trkpt><trkpt lat="41.86538588078197" lon="0.2634665315352439"><ele>332.0</ele><time>2026-03-30T13:41:42Z</time></trkpt><trkpt lat="41.865567570472024" lon="0.26320735061324874"><ele>334.0</ele><time>2026-03-30T13:41:43Z</time></trkpt><trkpt lat="41.86571826312073" lon="0.26291011548005283"><ele>336.0</ele><time>2026-03-30T13:41:44Z</time></trkpt><trkpt lat="41.86588658121368" lon="0.26263594763149506"><ele>335.0</ele><time>2026-03-30T13:41:45Z</time></trkpt><trkpt lat="41.86605436181837" lon="0.26237572879297083"><ele>334.0</ele><time>2026-03-30T13:41:46Z</time></trkpt><trkpt lat="41.866223151572534" lon="0.2621177206120279"><ele>334.0</ele><time>2026-03-30T13:41:47Z</time></trkpt><trkpt lat="41.86638703074641" lon="0.2618593772401195"><ele>334.0</ele><time>2026-03-30T13:41:48Z</time></trkpt><trkpt lat="41.866542671564886" lon="0.2615996210000407"><ele>335.0</ele><time>2026-03-30T13:41:49Z</time></trkpt><trkpt lat="41.86669404195545" lon="0.2613391837929889"><ele>336.0</ele><time>2026-03-30T13:41:50Z</time></trkpt><trkpt lat="41.86683872660543" lon="0.2610740188197334"><ele>336.0</ele><time>2026-03-30T13:41:51Z</time></trkpt><trkpt lat="41.86698390003889" lon="0.2608113908589671"><ele>336.0</ele><time>2026-03-30T13:41:52Z</time></trkpt><trkpt lat="41.86712841134132" lon="0.26054901263241603"><ele>337.5</ele><time>2026-03-30T13:41:53Z</time></trkpt><trkpt lat="41.867275688053276" lon="0.2602879199464392"><ele>339.0</ele><time>2026-03-30T13:41:54Z</time></trkpt><trkpt lat="41.867424100721855" lon="0.26001856914413024"><ele>340.0</ele><time>2026-03-30T13:41:55Z</time></trkpt><trkpt lat="41.86757577556754" lon="0.25974586963985036"><ele>341.0</ele><time>2026-03-30T13:41:56Z</time></trkpt><trkpt lat="41.86772261426081" lon="0.25947435210310626"><ele>341.0</ele><time>2026-03-30T13:41:57Z</time></trkpt><trkpt lat="41.86786884827464" lon="0.2592027073910119"><ele>341.0</ele><time>2026-03-30T13:41:58Z</time></trkpt><trkpt lat="41.868015987050995" lon="0.25893031044412124"><ele>341.0</ele><time>2026-03-30T13:41:59Z</time></trkpt><trkpt lat="41.86816077720029" lon="0.258656806983054"><ele>341.0</ele><time>2026-03-30T13:42:00Z</time></trkpt><trkpt lat="41.868306202870684" lon="0.25838121982798185"><ele>341.0</ele><time>2026-03-30T13:42:01Z</time></trkpt><trkpt lat="41.86845389735637" lon="0.2581119518910763"><ele>341.0</ele><time>2026-03-30T13:42:02Z</time></trkpt><trkpt lat="41.86860080031095" lon="0.2578485680689048"><ele>341.0</ele><time>2026-03-30T13:42:03Z</time></trkpt><trkpt lat="41.86874280035636" lon="0.2575934165050207"><ele>341.0</ele><time>2026-03-30T13:42:04Z</time></trkpt><trkpt lat="41.86887913019683" lon="0.25734001505512455"><ele>342.5</ele><time>2026-03-30T13:42:05Z</time></trkpt><trkpt lat="41.86901366973802" lon="0.2570884881140443"><ele>344.0</ele><time>2026-03-30T13:42:06Z</time></trkpt><trkpt lat="41.869147137008845" lon="0.2568377367992403"><ele>344.0</ele><time>2026-03-30T13:42:07Z</time></trkpt><trkpt lat="41.86928133536484" lon="0.256587439997469"><ele>344.0</ele><time>2026-03-30T13:42:08Z</time></trkpt><trkpt lat="41.86941869444598" lon="0.2563352102714285"><ele>344.0</ele><time>2026-03-30T13:42:09Z</time></trkpt><trkpt lat="41.869557074959275" lon="0.2560821550931055"><ele>344.0</ele><time>2026-03-30T13:42:10Z</time></trkpt><trkpt lat="41.86969481703376" lon="0.2558290238043736"><ele>345.5</ele><time>2026-03-30T13:42:11Z</time></trkpt><trkpt lat="41.869836382640244" lon="0.2555734662727048"><ele>347.0</ele><time>2026-03-30T13:42:12Z</time></trkpt><trkpt lat="41.869976260253004" lon="0.2553175023425075"><ele>345.5</ele><time>2026-03-30T13:42:13Z</time></trkpt><trkpt lat="41.87011744340438" lon="0.25505866569066993"><ele>344.0</ele><time>2026-03-30T13:42:14Z</time></trkpt><trkpt lat="41.87025826282135" lon="0.2548024825486888"><ele>346.0</ele><time>2026-03-30T13:42:15Z</time></trkpt><trkpt lat="41.870398781811616" lon="0.2545444374124193"><ele>348.0</ele><time>2026-03-30T13:42:16Z</time></trkpt><trkpt lat="41.870538542365416" lon="0.2542849748544878"><ele>348.0</ele><time>2026-03-30T13:42:17Z</time></trkpt><trkpt lat="41.87068065562159" lon="0.25402482861543346"><ele>348.0</ele><time>2026-03-30T13:42:18Z</time></trkpt><trkpt lat="41.87081809239753" lon="0.25376774172266"><ele>349.5</ele><time>2026-03-30T13:42:19Z</time></trkpt><trkpt lat="41.870956163205236" lon="0.253510544540731"><ele>351.0</ele><time>2026-03-30T13:42:20Z</time></trkpt><trkpt lat="41.87109600962856" lon="0.2532530736705465"><ele>352.5</ele><time>2026-03-30T13:42:21Z</time></trkpt><trkpt lat="41.87124334422445" lon="0.252983464946195"><ele>354.0</ele><time>2026-03-30T13:42:22Z</time></trkpt><trkpt lat="41.87139307666823" lon="0.2527153068235313"><ele>354.0</ele><time>2026-03-30T13:42:23Z</time></trkpt><trkpt lat="41.87153778044451" lon="0.2524542215946331"><ele>354.0</ele><time>2026-03-30T13:42:24Z</time></trkpt><trkpt lat="41.87169830360956" lon="0.2521792536710674"><ele>355.5</ele><time>2026-03-30T13:42:25Z</time></trkpt><trkpt lat="41.8718553378429" lon="0.2519173733584953"><ele>357.0</ele><time>2026-03-30T13:42:26Z</time></trkpt><trkpt lat="41.87201586519395" lon="0.251664547947163"><ele>356.5</ele><time>2026-03-30T13:42:27Z</time></trkpt><trkpt lat="41.87217914922217" lon="0.2514210733459516"><ele>356.0</ele><time>2026-03-30T13:42:28Z</time></trkpt><trkpt lat="41.87229524976497" lon="0.2511391925213566"><ele>356.0</ele><time>2026-03-30T13:42:29Z</time></trkpt><trkpt lat="41.8723697224561" lon="0.2508265986010051"><ele>356.0</ele><time>2026-03-30T13:42:30Z</time></trkpt><trkpt lat="41.872399943307656" lon="0.25050422080301415"><ele>355.33333333333337</ele><time>2026-03-30T13:42:31Z</time></trkpt><trkpt lat="41.87245085349052" lon="0.2501998903542576"><ele>354.6666666666667</ele><time>2026-03-30T13:42:32Z</time></trkpt><trkpt lat="41.872506549851806" lon="0.24992635850546044"><ele>354.0</ele><time>2026-03-30T13:42:33Z</time></trkpt><trkpt lat="41.872564008845096" lon="0.24967099098503112"><ele>354.3333333333333</ele><time>2026-03-30T13:42:34Z</time></trkpt><trkpt lat="41.8726640169628" lon="0.2494331352413366"><ele>354.66666666666663</ele><time>2026-03-30T13:42:35Z</time></trkpt><trkpt lat="41.872820438803394" lon="0.24922234937964485"><ele>355.0</ele><time>2026-03-30T13:42:36Z</time></trkpt><trkpt lat="41.87301491866763" lon="0.24907254101720042"><ele>355.0</ele><time>2026-03-30T13:42:37Z</time></trkpt><trkpt lat="41.87323257884194" lon="0.24899969093698002"><ele>355.0</ele><time>2026-03-30T13:42:38Z</time></trkpt><trkpt lat="41.87345302426754" lon="0.24898707955661306"><ele>355.0</ele><time>2026-03-30T13:42:39Z</time></trkpt><trkpt lat="41.87366535952045" lon="0.24900390322939658"><ele>354.66666666666663</ele><time>2026-03-30T13:42:40Z</time></trkpt><trkpt lat="41.87387444352757" lon="0.2490242849693689"><ele>354.3333333333333</ele><time>2026-03-30T13:42:41Z</time></trkpt><trkpt lat="41.87408449563989" lon="0.24903149516821024"><ele>354.0</ele><time>2026-03-30T13:42:42Z</time></trkpt><trkpt lat="41.87430017883584" lon="0.24900867662958914"><ele>352.0</ele><time>2026-03-30T13:42:43Z</time></trkpt><trkpt lat="41.87451314899094" lon="0.24896391093168802"><ele>350.0</ele><time>2026-03-30T13:42:44Z</time></trkpt><trkpt lat="41.8747126262692" lon="0.24883740106740185"><ele>348.0</ele><time>2026-03-30T13:42:45Z</time></trkpt><trkpt lat="41.874895231348845" lon="0.2486577673516293"><ele>348.0</ele><time>2026-03-30T13:42:46Z</time></trkpt><trkpt lat="41.87505790764545" lon="0.24843390650070235"><ele>348.0</ele><time>2026-03-30T13:42:47Z</time></trkpt><trkpt lat="41.87522406596452" lon="0.2481911381093583"><ele>345.5</ele><time>2026-03-30T13:42:48Z</time></trkpt><trkpt lat="41.87540728497474" lon="0.24792618986226322"><ele>343.0</ele><time>2026-03-30T13:42:49Z</time></trkpt><trkpt lat="41.87558983168953" lon="0.2476879505891333"><ele>343.0</ele><time>2026-03-30T13:42:50Z</time></trkpt><trkpt lat="41.875754136927235" lon="0.24745267751376854"><ele>343.0</ele><time>2026-03-30T13:42:51Z</time></trkpt><trkpt lat="41.87591862655043" lon="0.24721621844094105"><ele>341.0</ele><time>2026-03-30T13:42:52Z</time></trkpt><trkpt lat="41.876101003058785" lon="0.24695196771807548"><ele>339.0</ele><time>2026-03-30T13:42:53Z</time></trkpt><trkpt lat="41.87628917716718" lon="0.24669370009280048"><ele>339.0</ele><time>2026-03-30T13:42:54Z</time></trkpt><trkpt lat="41.876477906314676" lon="0.24642868955167338"><ele>339.0</ele><time>2026-03-30T13:42:55Z</time></trkpt><trkpt lat="41.876661872877435" lon="0.246163948694707"><ele>336.5</ele><time>2026-03-30T13:42:56Z</time></trkpt><trkpt lat="41.876845614475016" lon="0.24589917253500818"><ele>334.0</ele><time>2026-03-30T13:42:57Z</time></trkpt><trkpt lat="41.87703281396811" lon="0.24563283585193954"><ele>334.0</ele><time>2026-03-30T13:42:58Z</time></trkpt><trkpt lat="41.877220243140314" lon="0.245370216378392"><ele>334.0</ele><time>2026-03-30T13:42:59Z</time></trkpt><trkpt lat="41.87740404719492" lon="0.2451090893255459"><ele>334.0</ele><time>2026-03-30T13:43:00Z</time></trkpt><trkpt lat="41.8775920174267" lon="0.2448417461002061"><ele>334.0</ele><time>2026-03-30T13:43:01Z</time></trkpt><trkpt lat="41.87778170502071" lon="0.24457856869647884"><ele>333.0</ele><time>2026-03-30T13:43:02Z</time></trkpt><trkpt lat="41.87797532852035" lon="0.24431110653297938"><ele>332.0</ele><time>2026-03-30T13:43:03Z</time></trkpt><trkpt lat="41.878167184172135" lon="0.2440410324145553"><ele>331.0</ele><time>2026-03-30T13:43:04Z</time></trkpt><trkpt lat="41.8783610435053" lon="0.24376828634274145"><ele>330.0</ele><time>2026-03-30T13:43:05Z</time></trkpt><trkpt lat="41.8785527601338" lon="0.24349547507983718"><ele>329.0</ele><time>2026-03-30T13:43:06Z</time></trkpt><trkpt lat="41.878747377518074" lon="0.24322044531835235"><ele>328.0</ele><time>2026-03-30T13:43:07Z</time></trkpt><trkpt lat="41.87894215827082" lon="0.24294268323907617"><ele>327.5</ele><time>2026-03-30T13:43:08Z</time></trkpt><trkpt lat="41.87913921451901" lon="0.24266382994567023"><ele>327.0</ele><time>2026-03-30T13:43:09Z</time></trkpt><trkpt lat="41.87933717885733" lon="0.24238502907407422"><ele>326.5</ele><time>2026-03-30T13:43:10Z</time></trkpt><trkpt lat="41.8795363300596" lon="0.24211088296753921"><ele>326.0</ele><time>2026-03-30T13:43:11Z</time></trkpt><trkpt lat="41.87973328093855" lon="0.241843039888511"><ele>326.0</ele><time>2026-03-30T13:43:12Z</time></trkpt><trkpt lat="41.87992782105879" lon="0.24157365183768822"><ele>326.0</ele><time>2026-03-30T13:43:13Z</time></trkpt><trkpt lat="41.88012269056188" lon="0.2413013439657097"><ele>326.0</ele><time>2026-03-30T13:43:14Z</time></trkpt><trkpt lat="41.880315575630696" lon="0.24102702864563583"><ele>326.0</ele><time>2026-03-30T13:43:15Z</time></trkpt><trkpt lat="41.88051165781551" lon="0.24074383801399146"><ele>325.5</ele><time>2026-03-30T13:43:16Z</time></trkpt><trkpt lat="41.88070529028611" lon="0.24046708616311557"><ele>325.0</ele><time>2026-03-30T13:43:17Z</time></trkpt><trkpt lat="41.880896152485924" lon="0.24019157818328482"><ele>325.0</ele><time>2026-03-30T13:43:18Z</time></trkpt><trkpt lat="41.88108498033018" lon="0.23991092422493165"><ele>325.0</ele><time>2026-03-30T13:43:19Z</time></trkpt><trkpt lat="41.88127170198621" lon="0.23962858937236997"><ele>325.0</ele><time>2026-03-30T13:43:20Z</time></trkpt><trkpt lat="41.881450869105876" lon="0.2393387547365855"><ele>325.0</ele><time>2026-03-30T13:43:21Z</time></trkpt><trkpt lat="41.881631330766" lon="0.239043299415515"><ele>329.0</ele><time>2026-03-30T13:43:22Z</time></trkpt><trkpt lat="41.88181082784324" lon="0.23876475709953981"><ele>333.0</ele><time>2026-03-30T13:43:23Z</time></trkpt><trkpt lat="41.88197074593469" lon="0.23849130459276704"><ele>333.0</ele><time>2026-03-30T13:43:24Z</time></trkpt><trkpt lat="41.88213293573875" lon="0.23821661215862508"><ele>333.0</ele><time>2026-03-30T13:43:25Z</time></trkpt><trkpt lat="41.88229359725416" lon="0.23794994507606074"><ele>332.0</ele><time>2026-03-30T13:43:26Z</time></trkpt><trkpt lat="41.8824546149307" lon="0.2376915957959466"><ele>331.0</ele><time>2026-03-30T13:43:27Z</time></trkpt><trkpt lat="41.88261745996665" lon="0.23742936603382933"><ele>333.5</ele><time>2026-03-30T13:43:28Z</time></trkpt><trkpt lat="41.88278972365475" lon="0.23714928054537227"><ele>336.0</ele><time>2026-03-30T13:43:29Z</time></trkpt><trkpt lat="41.88296153646979" lon="0.23687471205629054"><ele>336.0</ele><time>2026-03-30T13:43:30Z</time></trkpt><trkpt lat="41.88313137583829" lon="0.23661444161589454"><ele>336.0</ele><time>2026-03-30T13:43:31Z</time></trkpt><trkpt lat="41.883297589599486" lon="0.2363623265634171"><ele>335.0</ele><time>2026-03-30T13:43:32Z</time></trkpt><trkpt lat="41.88346211426579" lon="0.23611420536362754"><ele>334.0</ele><time>2026-03-30T13:43:33Z</time></trkpt><trkpt lat="41.883631827267" lon="0.23586430615819187"><ele>334.0</ele><time>2026-03-30T13:43:34Z</time></trkpt><trkpt lat="41.88380969024865" lon="0.23561082387564056"><ele>334.0</ele><time>2026-03-30T13:43:35Z</time></trkpt><trkpt lat="41.883991242703566" lon="0.23535856531403593"><ele>334.0</ele><time>2026-03-30T13:43:36Z</time></trkpt><trkpt lat="41.88417448339588" lon="0.23511007966532038"><ele>334.0</ele><time>2026-03-30T13:43:37Z</time></trkpt><trkpt lat="41.88436121317963" lon="0.2348586744456834"><ele>332.5</ele><time>2026-03-30T13:43:38Z</time></trkpt><trkpt lat="41.88454652670152" lon="0.23460920659545909"><ele>331.0</ele><time>2026-03-30T13:43:39Z</time></trkpt><trkpt lat="41.88473333696262" lon="0.23435386136104414"><ele>331.0</ele><time>2026-03-30T13:43:40Z</time></trkpt><trkpt lat="41.884921967185264" lon="0.2341027858720816"><ele>331.0</ele><time>2026-03-30T13:43:41Z</time></trkpt><trkpt lat="41.88511742548459" lon="0.2338474526457172"><ele>327.5</ele><time>2026-03-30T13:43:42Z</time></trkpt><trkpt lat="41.88530907531102" lon="0.23359319417497115"><ele>324.0</ele><time>2026-03-30T13:43:43Z</time></trkpt><trkpt lat="41.885500674783884" lon="0.2333423027552513"><ele>323.0</ele><time>2026-03-30T13:43:44Z</time></trkpt><trkpt lat="41.88568891887626" lon="0.2330905483091404"><ele>322.0</ele><time>2026-03-30T13:43:45Z</time></trkpt><trkpt lat="41.885865974709105" lon="0.23283630472283415"><ele>319.0</ele><time>2026-03-30T13:43:46Z</time></trkpt><trkpt lat="41.8860454007314" lon="0.2325782514432067"><ele>316.0</ele><time>2026-03-30T13:43:47Z</time></trkpt><trkpt lat="41.886224968481386" lon="0.23231831931679625"><ele>315.5</ele><time>2026-03-30T13:43:48Z</time></trkpt><trkpt lat="41.886401752698816" lon="0.23206668618162793"><ele>315.0</ele><time>2026-03-30T13:43:49Z</time></trkpt><trkpt lat="41.886577748511655" lon="0.23181355635159628"><ele>315.0</ele><time>2026-03-30T13:43:50Z</time></trkpt><trkpt lat="41.88674380774586" lon="0.23156518160732506"><ele>315.0</ele><time>2026-03-30T13:43:51Z</time></trkpt><trkpt lat="41.886904088471724" lon="0.23131634325568362"><ele>312.5</ele><time>2026-03-30T13:43:52Z</time></trkpt><trkpt lat="41.88707216274493" lon="0.2310413839976543"><ele>310.0</ele><time>2026-03-30T13:43:53Z</time></trkpt><trkpt lat="41.88722483508033" lon="0.23078495632933663"><ele>310.0</ele><time>2026-03-30T13:43:54Z</time></trkpt><trkpt lat="41.88736618224453" lon="0.2305417555870759"><ele>310.0</ele><time>2026-03-30T13:43:55Z</time></trkpt><trkpt lat="41.88749379135819" lon="0.23030759005617293"><ele>310.0</ele><time>2026-03-30T13:43:56Z</time></trkpt><trkpt lat="41.88761709788499" lon="0.2300692794029107"><ele>310.0</ele><time>2026-03-30T13:43:57Z</time></trkpt><trkpt lat="41.8877439281776" lon="0.22982917926535273"><ele>310.0</ele><time>2026-03-30T13:43:58Z</time></trkpt><trkpt lat="41.88786914939137" lon="0.229600057305281"><ele>310.0</ele><time>2026-03-30T13:43:59Z</time></trkpt><trkpt lat="41.88798564674264" lon="0.22939460287819605"><ele>309.66666666666663</ele><time>2026-03-30T13:44:00Z</time></trkpt><trkpt lat="41.888094167584235" lon="0.2292006665984532"><ele>309.3333333333333</ele><time>2026-03-30T13:44:01Z</time></trkpt><trkpt lat="41.88819258620892" lon="0.22902103605283317"><ele>309.0</ele><time>2026-03-30T13:44:02Z</time></trkpt><trkpt lat="41.888288425249804" lon="0.22885911112016194"><ele>308.75</ele><time>2026-03-30T13:44:03Z</time></trkpt><trkpt lat="41.8883780697416" lon="0.22871523085341394"><ele>308.5</ele><time>2026-03-30T13:44:04Z</time></trkpt><trkpt lat="41.88846161712683" lon="0.22858182816883382"><ele>308.25</ele><time>2026-03-30T13:44:05Z</time></trkpt><trkpt lat="41.88854303408042" lon="0.22845519326667713"><ele>308.0</ele><time>2026-03-30T13:44:06Z</time></trkpt><trkpt lat="41.88863150836972" lon="0.22833751301070204"><ele>308.75</ele><time>2026-03-30T13:44:07Z</time></trkpt><trkpt lat="41.888734348082544" lon="0.22824691064904157"><ele>309.5</ele><time>2026-03-30T13:44:08Z</time></trkpt><trkpt lat="41.88885307258032" lon="0.22819994863977022"><ele>310.25</ele><time>2026-03-30T13:44:09Z</time></trkpt><trkpt lat="41.88895024517638" lon="0.2281417973462434"><ele>311.0</ele><time>2026-03-30T13:44:10Z</time></trkpt><trkpt lat="41.88902678139996" lon="0.22803557536231633"><ele>311.0</ele><time>2026-03-30T13:44:11Z</time></trkpt><trkpt lat="41.88907655751789" lon="0.22788982212886635"><ele>311.0</ele><time>2026-03-30T13:44:12Z</time></trkpt><trkpt lat="41.88908979804779" lon="0.22771921286296604"><ele>311.0</ele><time>2026-03-30T13:44:13Z</time></trkpt><trkpt lat="41.88909191480901" lon="0.22753751776636932"><ele>311.0</ele><time>2026-03-30T13:44:14Z</time></trkpt><trkpt lat="41.889121715000584" lon="0.22734013211245865"><ele>311.6666666666667</ele><time>2026-03-30T13:44:15Z</time></trkpt><trkpt lat="41.88920810405544" lon="0.22717609498974092"><ele>312.3333333333333</ele><time>2026-03-30T13:44:16Z</time></trkpt><trkpt lat="41.88933043598005" lon="0.22700439136996756"><ele>313.0</ele><time>2026-03-30T13:44:17Z</time></trkpt><trkpt lat="41.889446368022924" lon="0.2268099812689441"><ele>313.66666666666663</ele><time>2026-03-30T13:44:18Z</time></trkpt><trkpt lat="41.88956686743568" lon="0.22659366970378378"><ele>314.3333333333333</ele><time>2026-03-30T13:44:19Z</time></trkpt><trkpt lat="41.889691826632415" lon="0.22637251708281983"><ele>315.0</ele><time>2026-03-30T13:44:20Z</time></trkpt><trkpt lat="41.88980843034638" lon="0.22617232046978486"><ele>315.0</ele><time>2026-03-30T13:44:21Z</time></trkpt><trkpt lat="41.88992279716394" lon="0.22596744596370505"><ele>315.0</ele><time>2026-03-30T13:44:22Z</time></trkpt><trkpt lat="41.89003827026208" lon="0.22575879429379372"><ele>315.0</ele><time>2026-03-30T13:44:23Z</time></trkpt><trkpt lat="41.89016878826908" lon="0.2255277187243997"><ele>313.5</ele><time>2026-03-30T13:44:24Z</time></trkpt><trkpt lat="41.890317862391136" lon="0.2252730516452974"><ele>312.0</ele><time>2026-03-30T13:44:25Z</time></trkpt><trkpt lat="41.890467786759096" lon="0.2250099840367178"><ele>311.5</ele><time>2026-03-30T13:44:26Z</time></trkpt><trkpt lat="41.89060939969109" lon="0.22475525336017896"><ele>311.0</ele><time>2026-03-30T13:44:27Z</time></trkpt><trkpt lat="41.890756237520506" lon="0.22450110610754048"><ele>311.0</ele><time>2026-03-30T13:44:28Z</time></trkpt><trkpt lat="41.89090160089257" lon="0.22424693324653708"><ele>311.0</ele><time>2026-03-30T13:44:29Z</time></trkpt><trkpt lat="41.89104452679041" lon="0.22398879755570358"><ele>310.0</ele><time>2026-03-30T13:44:30Z</time></trkpt><trkpt lat="41.89118984700785" lon="0.2237305691088771"><ele>309.0</ele><time>2026-03-30T13:44:31Z</time></trkpt><trkpt lat="41.89133986613381" lon="0.22347516672324846"><ele>309.0</ele><time>2026-03-30T13:44:32Z</time></trkpt><trkpt lat="41.89149016868097" lon="0.22321390517644676"><ele>309.0</ele><time>2026-03-30T13:44:33Z</time></trkpt><trkpt lat="41.89163847418453" lon="0.2229481460110011"><ele>306.5</ele><time>2026-03-30T13:44:34Z</time></trkpt><trkpt lat="41.891789424415926" lon="0.22267762032362756"><ele>304.0</ele><time>2026-03-30T13:44:35Z</time></trkpt><trkpt lat="41.89193729062503" lon="0.22240973588323182"><ele>303.0</ele><time>2026-03-30T13:44:36Z</time></trkpt><trkpt lat="41.89209462412436" lon="0.2221316515373324"><ele>302.0</ele><time>2026-03-30T13:44:37Z</time></trkpt><trkpt lat="41.89225152286415" lon="0.2218565835451654"><ele>302.0</ele><time>2026-03-30T13:44:38Z</time></trkpt><trkpt lat="41.892418367025094" lon="0.22156353252226232"><ele>302.0</ele><time>2026-03-30T13:44:39Z</time></trkpt><trkpt lat="41.892582809674764" lon="0.2212650101717104"><ele>302.0</ele><time>2026-03-30T13:44:40Z</time></trkpt><trkpt lat="41.89274745497705" lon="0.22097040189312"><ele>302.0</ele><time>2026-03-30T13:44:41Z</time></trkpt><trkpt lat="41.89291194440537" lon="0.22068488459053653"><ele>301.0</ele><time>2026-03-30T13:44:42Z</time></trkpt><trkpt lat="41.893075819414435" lon="0.22039554049265897"><ele>300.0</ele><time>2026-03-30T13:44:43Z</time></trkpt><trkpt lat="41.89323766925761" lon="0.22010759039139735"><ele>300.0</ele><time>2026-03-30T13:44:44Z</time></trkpt><trkpt lat="41.89340155852347" lon="0.21982494582369858"><ele>300.0</ele><time>2026-03-30T13:44:45Z</time></trkpt><trkpt lat="41.89356233490843" lon="0.21954833113366937"><ele>298.5</ele><time>2026-03-30T13:44:46Z</time></trkpt><trkpt lat="41.893716288093096" lon="0.21927154908265795"><ele>297.0</ele><time>2026-03-30T13:44:47Z</time></trkpt><trkpt lat="41.89386821572044" lon="0.21900519231668275"><ele>296.5</ele><time>2026-03-30T13:44:48Z</time></trkpt><trkpt lat="41.89402002838774" lon="0.2187346008679291"><ele>296.0</ele><time>2026-03-30T13:44:49Z</time></trkpt><trkpt lat="41.894171516087766" lon="0.21846118783830987"><ele>297.5</ele><time>2026-03-30T13:44:50Z</time></trkpt><trkpt lat="41.8943261688901" lon="0.21819058217124943"><ele>299.0</ele><time>2026-03-30T13:44:51Z</time></trkpt><trkpt lat="41.89447659259557" lon="0.2179198408864775"><ele>299.0</ele><time>2026-03-30T13:44:52Z</time></trkpt><trkpt lat="41.89462838200803" lon="0.21765279353428335"><ele>299.0</ele><time>2026-03-30T13:44:53Z</time></trkpt><trkpt lat="41.894780809779554" lon="0.217388655364412"><ele>298.5</ele><time>2026-03-30T13:44:54Z</time></trkpt><trkpt lat="41.894930305831494" lon="0.21712341931682935"><ele>298.0</ele><time>2026-03-30T13:44:55Z</time></trkpt><trkpt lat="41.89508232429232" lon="0.2168563454044312"><ele>299.0</ele><time>2026-03-30T13:44:56Z</time></trkpt><trkpt lat="41.89523179941255" lon="0.21659241389350214"><ele>300.0</ele><time>2026-03-30T13:44:57Z</time></trkpt><trkpt lat="41.89538012117756" lon="0.21632779848688163"><ele>300.0</ele><time>2026-03-30T13:44:58Z</time></trkpt><trkpt lat="41.895523214736336" lon="0.21606233007770767"><ele>300.0</ele><time>2026-03-30T13:44:59Z</time></trkpt><trkpt lat="41.89567036887375" lon="0.21579298003916952"><ele>300.0</ele><time>2026-03-30T13:45:00Z</time></trkpt><trkpt lat="41.89582971869951" lon="0.21551607698861008"><ele>300.0</ele><time>2026-03-30T13:45:01Z</time></trkpt><trkpt lat="41.89599136992983" lon="0.21524529225640654"><ele>301.0</ele><time>2026-03-30T13:45:02Z</time></trkpt><trkpt lat="41.896146024154234" lon="0.21497453533638655"><ele>302.0</ele><time>2026-03-30T13:45:03Z</time></trkpt><trkpt lat="41.89629303600598" lon="0.21470533156845978"><ele>302.0</ele><time>2026-03-30T13:45:04Z</time></trkpt><trkpt lat="41.89644633058334" lon="0.21443520778842284"><ele>302.0</ele><time>2026-03-30T13:45:05Z</time></trkpt><trkpt lat="41.89660138270049" lon="0.2141644792591106"><ele>301.5</ele><time>2026-03-30T13:45:06Z</time></trkpt><trkpt lat="41.89675567480128" lon="0.21389044868654597"><ele>301.0</ele><time>2026-03-30T13:45:07Z</time></trkpt><trkpt lat="41.896906747972665" lon="0.2136216192968255"><ele>301.0</ele><time>2026-03-30T13:45:08Z</time></trkpt><trkpt lat="41.89705441899926" lon="0.21336645215177072"><ele>301.0</ele><time>2026-03-30T13:45:09Z</time></trkpt><trkpt lat="41.897192461247975" lon="0.21312716193628323"><ele>301.66666666666663</ele><time>2026-03-30T13:45:10Z</time></trkpt><trkpt lat="41.897327158535646" lon="0.21288894732875693"><ele>302.3333333333333</ele><time>2026-03-30T13:45:11Z</time></trkpt><trkpt lat="41.897453440766675" lon="0.21265883127836696"><ele>303.0</ele><time>2026-03-30T13:45:12Z</time></trkpt><trkpt lat="41.897574302012806" lon="0.21243461701611013"><ele>304.6666666666667</ele><time>2026-03-30T13:45:13Z</time></trkpt><trkpt lat="41.89769663496426" lon="0.212218352198736"><ele>306.33333333333337</ele><time>2026-03-30T13:45:14Z</time></trkpt><trkpt lat="41.89781351350977" lon="0.2120189785241649"><ele>308.0</ele><time>2026-03-30T13:45:15Z</time></trkpt><trkpt lat="41.89792968020171" lon="0.21182552703759755"><ele>308.0</ele><time>2026-03-30T13:45:16Z</time></trkpt><trkpt lat="41.89804402183971" lon="0.2116302409852798"><ele>308.0</ele><time>2026-03-30T13:45:17Z</time></trkpt><trkpt lat="41.89815384173856" lon="0.2114317382348462"><ele>308.0</ele><time>2026-03-30T13:45:18Z</time></trkpt><trkpt lat="41.898263826780386" lon="0.2112321806736267"><ele>308.0</ele><time>2026-03-30T13:45:19Z</time></trkpt><trkpt lat="41.89837203086247" lon="0.21103320590933167"><ele>308.0</ele><time>2026-03-30T13:45:20Z</time></trkpt><trkpt lat="41.89847646484181" lon="0.21085404448694745"><ele>308.0</ele><time>2026-03-30T13:45:21Z</time></trkpt><trkpt lat="41.89856694860172" lon="0.21069090131463633"><ele>309.0</ele><time>2026-03-30T13:45:22Z</time></trkpt><trkpt lat="41.89864604809884" lon="0.21054405071752658"><ele>310.0</ele><time>2026-03-30T13:45:23Z</time></trkpt><trkpt lat="41.898723527113546" lon="0.21041294066866467"><ele>311.0</ele><time>2026-03-30T13:45:24Z</time></trkpt><trkpt lat="41.89880017053628" lon="0.21028335469893017"><ele>312.0</ele><time>2026-03-30T13:45:25Z</time></trkpt><trkpt lat="41.898868855019415" lon="0.21015837937258242"><ele>312.0</ele><time>2026-03-30T13:45:26Z</time></trkpt><trkpt lat="41.89893783801872" lon="0.2100336941199548"><ele>312.0</ele><time>2026-03-30T13:45:27Z</time></trkpt><trkpt lat="41.89901265873025" lon="0.20989984994605668"><ele>312.0</ele><time>2026-03-30T13:45:28Z</time></trkpt><trkpt lat="41.899094073198874" lon="0.20975970934424568"><ele>312.0</ele><time>2026-03-30T13:45:29Z</time></trkpt><trkpt lat="41.899178097636906" lon="0.2096098391704349"><ele>313.25</ele><time>2026-03-30T13:45:30Z</time></trkpt><trkpt lat="41.899259645518015" lon="0.20946033514442106"><ele>314.5</ele><time>2026-03-30T13:45:31Z</time></trkpt><trkpt lat="41.89933568784347" lon="0.2093237815639381"><ele>315.75</ele><time>2026-03-30T13:45:32Z</time></trkpt><trkpt lat="41.89940928241987" lon="0.2091947388156996"><ele>317.0</ele><time>2026-03-30T13:45:33Z</time></trkpt><trkpt lat="41.899481903752616" lon="0.20906767552085698"><ele>316.25</ele><time>2026-03-30T13:45:34Z</time></trkpt><trkpt lat="41.89955664738602" lon="0.20894133284944366"><ele>315.5</ele><time>2026-03-30T13:45:35Z</time></trkpt><trkpt lat="41.89962361231686" lon="0.20882040407675823"><ele>314.75</ele><time>2026-03-30T13:45:36Z</time></trkpt><trkpt lat="41.89969053876486" lon="0.20869745995075858"><ele>314.0</ele><time>2026-03-30T13:45:37Z</time></trkpt><trkpt lat="41.89975916289955" lon="0.20857777654683765"><ele>314.0</ele><time>2026-03-30T13:45:38Z</time></trkpt><trkpt lat="41.899826321011936" lon="0.20846662241680222"><ele>314.0</ele><time>2026-03-30T13:45:39Z</time></trkpt><trkpt lat="41.89989015060297" lon="0.20835618718717636"><ele>314.0</ele><time>2026-03-30T13:45:40Z</time></trkpt><trkpt lat="41.89995084547659" lon="0.20824755294131933"><ele>314.0</ele><time>2026-03-30T13:45:41Z</time></trkpt><trkpt lat="41.900011210564685" lon="0.20814153460917864"><ele>314.0</ele><time>2026-03-30T13:45:42Z</time></trkpt><trkpt lat="41.90007122800608" lon="0.2080345938987041"><ele>314.4</ele><time>2026-03-30T13:45:43Z</time></trkpt><trkpt lat="41.900133890483495" lon="0.20792624318788258"><ele>314.79999999999995</ele><time>2026-03-30T13:45:44Z</time></trkpt><trkpt lat="41.90019377874764" lon="0.20782083956629765"><ele>315.20000000000005</ele><time>2026-03-30T13:45:45Z</time></trkpt><trkpt lat="41.9002487427153" lon="0.20772968480273496"><ele>315.6</ele><time>2026-03-30T13:45:46Z</time></trkpt><trkpt lat="41.90032013907715" lon="0.2076576599197046"><ele>316.0</ele><time>2026-03-30T13:45:47Z</time></trkpt><trkpt lat="41.90038865321136" lon="0.2075686777916771"><ele>316.0</ele><time>2026-03-30T13:45:48Z</time></trkpt><trkpt lat="41.90043908527106" lon="0.2074759763392721"><ele>316.0</ele><time>2026-03-30T13:45:49Z</time></trkpt><trkpt lat="41.90048189703684" lon="0.20739252922813073"><ele>316.0</ele><time>2026-03-30T13:45:50Z</time></trkpt><trkpt lat="41.9005199310336" lon="0.20731757283496108"><ele>316.0</ele><time>2026-03-30T13:45:51Z</time></trkpt><trkpt lat="41.9005866545607" lon="0.20719689550527468"><ele>316.0</ele><time>2026-03-30T13:45:53Z</time></trkpt><trkpt lat="41.90063072881053" lon="0.20711495570318253"><ele>316.0</ele><time>2026-03-30T13:45:55Z</time></trkpt><trkpt lat="41.90068063502196" lon="0.20703068707640132"><ele>315.8333333333333</ele><time>2026-03-30T13:45:58Z</time></trkpt><trkpt lat="41.9007319310665" lon="0.20694491654028208"><ele>315.66666666666663</ele><time>2026-03-30T13:46:02Z</time></trkpt><trkpt lat="41.900774362788326" lon="0.20685991906741055"><ele>315.5</ele><time>2026-03-30T13:46:05Z</time></trkpt><trkpt lat="41.900815075083514" lon="0.20677722497487958"><ele>315.3333333333333</ele><time>2026-03-30T13:46:07Z</time></trkpt><trkpt lat="41.900868419238456" lon="0.20667793211101837"><ele>315.1666666666667</ele><time>2026-03-30T13:46:09Z</time></trkpt><trkpt lat="41.90092373363224" lon="0.2065931951849859"><ele>315.0</ele><time>2026-03-30T13:46:11Z</time></trkpt><trkpt lat="41.900964625884335" lon="0.20649682287933116"><ele>314.6</ele><time>2026-03-30T13:46:13Z</time></trkpt><trkpt lat="41.901038140474306" lon="0.2063520712360756"><ele>314.2</ele><time>2026-03-30T13:46:15Z</time></trkpt><trkpt lat="41.9010914009175" lon="0.2062598794569211"><ele>313.8</ele><time>2026-03-30T13:46:16Z</time></trkpt><trkpt lat="41.90114949939128" lon="0.20616273569148133"><ele>313.4</ele><time>2026-03-30T13:46:17Z</time></trkpt><trkpt lat="41.90121163803052" lon="0.2060659704746636"><ele>313.0</ele><time>2026-03-30T13:46:18Z</time></trkpt><trkpt lat="41.90127489638153" lon="0.2059774827505861"><ele>313.0</ele><time>2026-03-30T13:46:19Z</time></trkpt><trkpt lat="41.90133892636877" lon="0.20588219942224253"><ele>313.0</ele><time>2026-03-30T13:46:20Z</time></trkpt><trkpt lat="41.90141028296674" lon="0.2057910756179297"><ele>313.0</ele><time>2026-03-30T13:46:21Z</time></trkpt><trkpt lat="41.90148909759224" lon="0.20569600636014448"><ele>313.0</ele><time>2026-03-30T13:46:22Z</time></trkpt><trkpt lat="41.90157251498263" lon="0.20559405551103313"><ele>313.0</ele><time>2026-03-30T13:46:23Z</time></trkpt><trkpt lat="41.90166696983684" lon="0.20549538786892899"><ele>311.25</ele><time>2026-03-30T13:46:24Z</time></trkpt><trkpt lat="41.90176415618639" lon="0.2053865968074451"><ele>309.5</ele><time>2026-03-30T13:46:25Z</time></trkpt><trkpt lat="41.90186615419303" lon="0.20527624773104747"><ele>307.75</ele><time>2026-03-30T13:46:26Z</time></trkpt><trkpt lat="41.90197469087049" lon="0.2051644898530952"><ele>306.0</ele><time>2026-03-30T13:46:27Z</time></trkpt><trkpt lat="41.90208724963865" lon="0.20504984955382163"><ele>306.0</ele><time>2026-03-30T13:46:28Z</time></trkpt><trkpt lat="41.90220509214294" lon="0.20493412160199898"><ele>306.0</ele><time>2026-03-30T13:46:29Z</time></trkpt><trkpt lat="41.902323709494034" lon="0.20482305861994307"><ele>306.0</ele><time>2026-03-30T13:46:30Z</time></trkpt><trkpt lat="41.9024365754941" lon="0.20471117001361863"><ele>306.0</ele><time>2026-03-30T13:46:31Z</time></trkpt><trkpt lat="41.90254797782462" lon="0.20459517248475098"><ele>304.5</ele><time>2026-03-30T13:46:32Z</time></trkpt><trkpt lat="41.9026647645616" lon="0.20447334566182165"><ele>303.0</ele><time>2026-03-30T13:46:33Z</time></trkpt><trkpt lat="41.902782933658074" lon="0.2043553739503609"><ele>301.5</ele><time>2026-03-30T13:46:34Z</time></trkpt><trkpt lat="41.90289687032034" lon="0.20424514047792416"><ele>300.0</ele><time>2026-03-30T13:46:35Z</time></trkpt><trkpt lat="41.90300625499884" lon="0.2041403379538446"><ele>300.0</ele><time>2026-03-30T13:46:36Z</time></trkpt><trkpt lat="41.90310813647834" lon="0.20404119810756244"><ele>300.0</ele><time>2026-03-30T13:46:37Z</time></trkpt><trkpt lat="41.90320282161432" lon="0.20394271127785354"><ele>300.0</ele><time>2026-03-30T13:46:38Z</time></trkpt><trkpt lat="41.90329443485625" lon="0.20385018068104205"><ele>300.0</ele><time>2026-03-30T13:46:39Z</time></trkpt><trkpt lat="41.903396066518184" lon="0.2037670074322979"><ele>299.8</ele><time>2026-03-30T13:46:40Z</time></trkpt><trkpt lat="41.90347813998401" lon="0.20368670155141894"><ele>299.6</ele><time>2026-03-30T13:46:41Z</time></trkpt><trkpt lat="41.90356520842164" lon="0.2035959260819325"><ele>299.4</ele><time>2026-03-30T13:46:42Z</time></trkpt><trkpt lat="41.90365076024798" lon="0.20349790240171778"><ele>299.2</ele><time>2026-03-30T13:46:43Z</time></trkpt><trkpt lat="41.90374268716771" lon="0.20340566165967827"><ele>299.0</ele><time>2026-03-30T13:46:44Z</time></trkpt><trkpt lat="41.90382686314945" lon="0.2033214195478906"><ele>299.0</ele><time>2026-03-30T13:46:45Z</time></trkpt><trkpt lat="41.903910422158624" lon="0.20323636429102168"><ele>299.0</ele><time>2026-03-30T13:46:46Z</time></trkpt><trkpt lat="41.90399887177361" lon="0.20314662061377667"><ele>299.0</ele><time>2026-03-30T13:46:47Z</time></trkpt><trkpt lat="41.90408769515741" lon="0.20305749505923995"><ele>299.0</ele><time>2026-03-30T13:46:48Z</time></trkpt><trkpt lat="41.90418150728137" lon="0.20296140849604039"><ele>299.0</ele><time>2026-03-30T13:46:49Z</time></trkpt><trkpt lat="41.90427749450884" lon="0.20286354183250013"><ele>297.75</ele><time>2026-03-30T13:46:50Z</time></trkpt><trkpt lat="41.90437797283663" lon="0.20276334671106144"><ele>296.5</ele><time>2026-03-30T13:46:51Z</time></trkpt><trkpt lat="41.90448412322691" lon="0.2026576639847351"><ele>295.25</ele><time>2026-03-30T13:46:52Z</time></trkpt><trkpt lat="41.90459016445144" lon="0.20255233928497585"><ele>294.0</ele><time>2026-03-30T13:46:53Z</time></trkpt><trkpt lat="41.90469739228096" lon="0.20244628751606186"><ele>294.0</ele><time>2026-03-30T13:46:54Z</time></trkpt><trkpt lat="41.90480711384141" lon="0.20233664500496126"><ele>294.0</ele><time>2026-03-30T13:46:55Z</time></trkpt><trkpt lat="41.904902716133215" lon="0.20222839835649725"><ele>294.0</ele><time>2026-03-30T13:46:56Z</time></trkpt><trkpt lat="41.90499507461996" lon="0.20214789970484107"><ele>294.0</ele><time>2026-03-30T13:46:57Z</time></trkpt><trkpt lat="41.905105799994146" lon="0.20207953373373744"><ele>292.3333333333333</ele><time>2026-03-30T13:46:58Z</time></trkpt><trkpt lat="41.905234942543544" lon="0.20201066321758135"><ele>290.66666666666663</ele><time>2026-03-30T13:46:59Z</time></trkpt><trkpt lat="41.90536863316204" lon="0.20187958192362482"><ele>289.0</ele><time>2026-03-30T13:47:00Z</time></trkpt><trkpt lat="41.905516832616044" lon="0.2017263537374452"><ele>289.0</ele><time>2026-03-30T13:47:01Z</time></trkpt><trkpt lat="41.9056619309938" lon="0.2016020513116557"><ele>289.0</ele><time>2026-03-30T13:47:02Z</time></trkpt><trkpt lat="41.90579083269032" lon="0.20147834193264294"><ele>289.0</ele><time>2026-03-30T13:47:03Z</time></trkpt><trkpt lat="41.90590182807618" lon="0.20136218746710283"><ele>288.75</ele><time>2026-03-30T13:47:04Z</time></trkpt><trkpt lat="41.906009925964234" lon="0.20124699370420115"><ele>288.5</ele><time>2026-03-30T13:47:05Z</time></trkpt><trkpt lat="41.90611975826768" lon="0.20112325843026665"><ele>288.25</ele><time>2026-03-30T13:47:06Z</time></trkpt><trkpt lat="41.90622262443835" lon="0.20101260869052773"><ele>288.0</ele><time>2026-03-30T13:47:07Z</time></trkpt><trkpt lat="41.90632409947999" lon="0.2009125511847623"><ele>288.0</ele><time>2026-03-30T13:47:08Z</time></trkpt><trkpt lat="41.90642725952716" lon="0.20080758289178172"><ele>288.0</ele><time>2026-03-30T13:47:09Z</time></trkpt><trkpt lat="41.90652255608054" lon="0.20070948659813015"><ele>288.0</ele><time>2026-03-30T13:47:10Z</time></trkpt><trkpt lat="41.90661694425787" lon="0.20060393530160356"><ele>288.0</ele><time>2026-03-30T13:47:11Z</time></trkpt><trkpt lat="41.906718674435496" lon="0.20049792201169664"><ele>288.0</ele><time>2026-03-30T13:47:12Z</time></trkpt><trkpt lat="41.90682586760219" lon="0.20039657779497597"><ele>288.0</ele><time>2026-03-30T13:47:13Z</time></trkpt><trkpt lat="41.9069323523729" lon="0.2002976990258335"><ele>288.0</ele><time>2026-03-30T13:47:14Z</time></trkpt><trkpt lat="41.907033700180804" lon="0.20019309720239073"><ele>288.0</ele><time>2026-03-30T13:47:15Z</time></trkpt><trkpt lat="41.90713264071079" lon="0.20009234111787305"><ele>288.0</ele><time>2026-03-30T13:47:16Z</time></trkpt><trkpt lat="41.90722575995793" lon="0.2000106476331804"><ele>288.0</ele><time>2026-03-30T13:47:17Z</time></trkpt><trkpt lat="41.90731037634086" lon="0.19993544511303096"><ele>288.0</ele><time>2026-03-30T13:47:18Z</time></trkpt><trkpt lat="41.90738367973906" lon="0.1998562101273962"><ele>288.0</ele><time>2026-03-30T13:47:19Z</time></trkpt><trkpt lat="41.90744683050916" lon="0.19978010173360441"><ele>288.0</ele><time>2026-03-30T13:47:20Z</time></trkpt><trkpt lat="41.90749803023974" lon="0.1997075370243025"><ele>288.1666666666667</ele><time>2026-03-30T13:47:21Z</time></trkpt><trkpt lat="41.90755177339832" lon="0.19965233122018564"><ele>288.3333333333333</ele><time>2026-03-30T13:47:22Z</time></trkpt><trkpt lat="41.90760536778943" lon="0.1996077725568942"><ele>288.5</ele><time>2026-03-30T13:47:23Z</time></trkpt><trkpt lat="41.907707477408" lon="0.1995147869400623"><ele>288.66666666666663</ele><time>2026-03-30T13:47:25Z</time></trkpt><trkpt lat="41.907767748325924" lon="0.1994630634738151"><ele>288.8333333333333</ele><time>2026-03-30T13:47:26Z</time></trkpt><trkpt lat="41.907826752095424" lon="0.19940519600040335"><ele>289.0</ele><time>2026-03-30T13:47:27Z</time></trkpt><trkpt lat="41.907887834233236" lon="0.19931584657750584"><ele>289.0</ele><time>2026-03-30T13:47:28Z</time></trkpt><trkpt lat="41.907955127553905" lon="0.1992122772582385"><ele>289.0</ele><time>2026-03-30T13:47:29Z</time></trkpt><trkpt lat="41.90803414917313" lon="0.19910130504640114"><ele>289.0</ele><time>2026-03-30T13:47:30Z</time></trkpt><trkpt lat="41.90812988391854" lon="0.1990084388868811"><ele>289.0</ele><time>2026-03-30T13:47:31Z</time></trkpt><trkpt lat="41.908223835307396" lon="0.1989139441904765"><ele>289.0</ele><time>2026-03-30T13:47:32Z</time></trkpt><trkpt lat="41.90831485279395" lon="0.19881686948554167"><ele>289.0</ele><time>2026-03-30T13:47:33Z</time></trkpt><trkpt lat="41.90840735097872" lon="0.19872135348426354"><ele>289.0</ele><time>2026-03-30T13:47:34Z</time></trkpt><trkpt lat="41.90849692103212" lon="0.19863539187695775"><ele>289.0</ele><time>2026-03-30T13:47:35Z</time></trkpt><trkpt lat="41.9085832293711" lon="0.19855552025973322"><ele>289.0</ele><time>2026-03-30T13:47:36Z</time></trkpt><trkpt lat="41.90867338700031" lon="0.1984777188823557"><ele>288.3333333333333</ele><time>2026-03-30T13:47:37Z</time></trkpt><trkpt lat="41.90875304970488" lon="0.19841019224221118"><ele>287.66666666666663</ele><time>2026-03-30T13:47:38Z</time></trkpt><trkpt lat="41.908824093394756" lon="0.19835086544063946"><ele>287.0</ele><time>2026-03-30T13:47:39Z</time></trkpt><trkpt lat="41.90889020634376" lon="0.19829500774598527"><ele>286.3333333333333</ele><time>2026-03-30T13:47:40Z</time></trkpt><trkpt lat="41.90894840807407" lon="0.19824438708618666"><ele>285.6666666666667</ele><time>2026-03-30T13:47:41Z</time></trkpt><trkpt lat="41.9090386135297" lon="0.1981672302258558"><ele>285.0</ele><time>2026-03-30T13:47:43Z</time></trkpt><trkpt lat="41.90912120299661" lon="0.19810389435328626"><ele>285.0</ele><time>2026-03-30T13:47:45Z</time></trkpt><trkpt lat="41.909202864815285" lon="0.19803427225192466"><ele>285.0</ele><time>2026-03-30T13:47:47Z</time></trkpt><trkpt lat="41.90930776303448" lon="0.1979885847715704"><ele>285.0</ele><time>2026-03-30T13:47:49Z</time></trkpt><trkpt lat="41.909419506075466" lon="0.1979972435046622"><ele>285.0</ele><time>2026-03-30T13:47:51Z</time></trkpt><trkpt lat="41.90950587727037" lon="0.19788320121999617"><ele>285.0</ele><time>2026-03-30T13:47:53Z</time></trkpt><trkpt lat="41.90957387853272" lon="0.19772924627604188"><ele>283.8</ele><time>2026-03-30T13:47:55Z</time></trkpt><trkpt lat="41.90966302871287" lon="0.19765226590034662"><ele>282.6</ele><time>2026-03-30T13:47:57Z</time></trkpt><trkpt lat="41.90974861847556" lon="0.1975740526332316"><ele>281.4</ele><time>2026-03-30T13:47:59Z</time></trkpt><trkpt lat="41.90980439701479" lon="0.1975272007709719"><ele>280.2</ele><time>2026-03-30T13:48:00Z</time></trkpt><trkpt lat="41.90986367310308" lon="0.197478977200266"><ele>279.0</ele><time>2026-03-30T13:48:01Z</time></trkpt><trkpt lat="41.909963602461495" lon="0.19739146897966783"><ele>279.0</ele><time>2026-03-30T13:48:03Z</time></trkpt><trkpt lat="41.91006942239662" lon="0.19730225696165046"><ele>279.0</ele><time>2026-03-30T13:48:05Z</time></trkpt><trkpt lat="41.910129694130696" lon="0.1972552965615535"><ele>279.0</ele><time>2026-03-30T13:48:06Z</time></trkpt><trkpt lat="41.910191856981754" lon="0.1972041739742464"><ele>279.0</ele><time>2026-03-30T13:48:07Z</time></trkpt><trkpt lat="41.91025464611811" lon="0.19715037317885112"><ele>279.0</ele><time>2026-03-30T13:48:08Z</time></trkpt><trkpt lat="41.910316916408526" lon="0.19709229590343094"><ele>279.0</ele><time>2026-03-30T13:48:09Z</time></trkpt><trkpt lat="41.910378698647804" lon="0.19704415783508525"><ele>279.0</ele><time>2026-03-30T13:48:10Z</time></trkpt><trkpt lat="41.91047043132257" lon="0.1969641556390835"><ele>279.0</ele><time>2026-03-30T13:48:12Z</time></trkpt><trkpt lat="41.91052327292649" lon="0.19691315981976512"><ele>279.0</ele><time>2026-03-30T13:48:15Z</time></trkpt><trkpt lat="41.91060882003851" lon="0.1968436981832009"><ele>279.0</ele><time>2026-03-30T13:48:19Z</time></trkpt><trkpt lat="41.91068739786983" lon="0.1967914045143305"><ele>279.0</ele><time>2026-03-30T13:48:21Z</time></trkpt><trkpt lat="41.910773766901706" lon="0.1967427066420562"><ele>279.0</ele><time>2026-03-30T13:48:23Z</time></trkpt><trkpt lat="41.91090070625555" lon="0.19672904460281423"><ele>279.0</ele><time>2026-03-30T13:48:25Z</time></trkpt><trkpt lat="41.9110034549977" lon="0.19663238560395652"><ele>279.0</ele><time>2026-03-30T13:48:27Z</time></trkpt><trkpt lat="41.91104169084334" lon="0.19655907931792743"><ele>279.0</ele><time>2026-03-30T13:48:28Z</time></trkpt><trkpt lat="41.911078661247004" lon="0.1964806445273517"><ele>279.0</ele><time>2026-03-30T13:48:29Z</time></trkpt><trkpt lat="41.911124844817756" lon="0.19642006513103874"><ele>278.1666666666667</ele><time>2026-03-30T13:48:30Z</time></trkpt><trkpt lat="41.91118411655841" lon="0.19635716770915898"><ele>277.3333333333333</ele><time>2026-03-30T13:48:31Z</time></trkpt><trkpt lat="41.911254111316765" lon="0.1963052639655352"><ele>276.5</ele><time>2026-03-30T13:48:32Z</time></trkpt><trkpt lat="41.91132686397426" lon="0.19624791971016264"><ele>275.66666666666663</ele><time>2026-03-30T13:48:33Z</time></trkpt><trkpt lat="41.91139000322156" lon="0.1961894900078373"><ele>274.8333333333333</ele><time>2026-03-30T13:48:34Z</time></trkpt><trkpt lat="41.91145301675322" lon="0.19613917303886938"><ele>274.0</ele><time>2026-03-30T13:48:35Z</time></trkpt><trkpt lat="41.91151959519838" lon="0.19608003716234848"><ele>274.0</ele><time>2026-03-30T13:48:36Z</time></trkpt><trkpt lat="41.91159081023315" lon="0.19601924763409018"><ele>274.0</ele><time>2026-03-30T13:48:37Z</time></trkpt><trkpt lat="41.91166594448189" lon="0.19595939809067395"><ele>274.0</ele><time>2026-03-30T13:48:38Z</time></trkpt><trkpt lat="41.911736465607774" lon="0.19590013584672286"><ele>274.0</ele><time>2026-03-30T13:48:39Z</time></trkpt><trkpt lat="41.911804322582505" lon="0.19584042735698134"><ele>274.0</ele><time>2026-03-30T13:48:40Z</time></trkpt><trkpt lat="41.91187466445531" lon="0.19578153363240736"><ele>274.0</ele><time>2026-03-30T13:48:41Z</time></trkpt><trkpt lat="41.91194330054231" lon="0.19572518357581337"><ele>274.2</ele><time>2026-03-30T13:48:42Z</time></trkpt><trkpt lat="41.9120024292403" lon="0.19567714424739197"><ele>274.4</ele><time>2026-03-30T13:48:43Z</time></trkpt><trkpt lat="41.91209996445697" lon="0.19559037833745416"><ele>274.6</ele><time>2026-03-30T13:48:45Z</time></trkpt><trkpt lat="41.91218808453205" lon="0.19554047293612473"><ele>274.8</ele><time>2026-03-30T13:48:47Z</time></trkpt><trkpt lat="41.912267087389274" lon="0.19553328296712552"><ele>275.0</ele><time>2026-03-30T13:48:49Z</time></trkpt><trkpt lat="41.912362419653846" lon="0.19551461300707385"><ele>275.0</ele><time>2026-03-30T13:48:51Z</time></trkpt><trkpt lat="41.912432562911796" lon="0.19542402519285554"><ele>275.0</ele><time>2026-03-30T13:48:53Z</time></trkpt><trkpt lat="41.91245651497854" lon="0.19528083910466135"><ele>275.0</ele><time>2026-03-30T13:48:55Z</time></trkpt><trkpt lat="41.912434112306194" lon="0.19518293850863858"><ele>275.0</ele><time>2026-03-30T13:48:58Z</time></trkpt><trkpt lat="41.912431555916015" lon="0.19507037560420945"><ele>275.0</ele><time>2026-03-30T13:49:02Z</time></trkpt><trkpt lat="41.91245178145853" lon="0.1949385925512618"><ele>274.83333333333337</ele><time>2026-03-30T13:49:04Z</time></trkpt><trkpt lat="41.91248549022609" lon="0.19479523831394285"><ele>274.6666666666667</ele><time>2026-03-30T13:49:06Z</time></trkpt><trkpt lat="41.9125078934514" lon="0.1946997904431249"><ele>274.5</ele><time>2026-03-30T13:49:07Z</time></trkpt><trkpt lat="41.91252606759154" lon="0.1945963672655398"><ele>274.3333333333333</ele><time>2026-03-30T13:49:08Z</time></trkpt><trkpt lat="41.912546569488306" lon="0.1944891546275695"><ele>274.16666666666663</ele><time>2026-03-30T13:49:09Z</time></trkpt><trkpt lat="41.912566527255805" lon="0.19437558803690347"><ele>274.0</ele><time>2026-03-30T13:49:10Z</time></trkpt><trkpt lat="41.91258375773568" lon="0.19425370300793207"><ele>274.4</ele><time>2026-03-30T13:49:11Z</time></trkpt><trkpt lat="41.91259924998639" lon="0.19413882450312087"><ele>274.79999999999995</ele><time>2026-03-30T13:49:12Z</time></trkpt><trkpt lat="41.9126278416814" lon="0.19400586374680598"><ele>275.20000000000005</ele><time>2026-03-30T13:49:13Z</time></trkpt><trkpt lat="41.91265738456354" lon="0.193880211884137"><ele>275.6</ele><time>2026-03-30T13:49:14Z</time></trkpt><trkpt lat="41.91267145147434" lon="0.19377891227259297"><ele>276.0</ele><time>2026-03-30T13:49:16Z</time></trkpt><trkpt lat="41.91269225503157" lon="0.1936384890918358"><ele>276.0</ele><time>2026-03-30T13:49:18Z</time></trkpt><trkpt lat="41.9127159757556" lon="0.1934730735059244"><ele>276.0</ele><time>2026-03-30T13:49:20Z</time></trkpt><trkpt lat="41.91273305467654" lon="0.19338615109538548"><ele>276.0</ele><time>2026-03-30T13:49:21Z</time></trkpt><trkpt lat="41.912747466634244" lon="0.19329398135076492"><ele>276.0</ele><time>2026-03-30T13:49:22Z</time></trkpt><trkpt lat="41.91275797689276" lon="0.19320752217849618"><ele>276.0</ele><time>2026-03-30T13:49:23Z</time></trkpt><trkpt lat="41.91277644937054" lon="0.19304290440387137"><ele>275.6</ele><time>2026-03-30T13:49:25Z</time></trkpt><trkpt lat="41.91279705716981" lon="0.1928974367837376"><ele>275.20000000000005</ele><time>2026-03-30T13:49:27Z</time></trkpt><trkpt lat="41.912814270625155" lon="0.19277955700416644"><ele>274.79999999999995</ele><time>2026-03-30T13:49:29Z</time></trkpt><trkpt lat="41.91283384735484" lon="0.19264820408444286"><ele>274.4</ele><time>2026-03-30T13:49:31Z</time></trkpt><trkpt lat="41.91284876375914" lon="0.192561700770603"><ele>274.0</ele><time>2026-03-30T13:49:32Z</time></trkpt><trkpt lat="41.912885043354" lon="0.19241757389057748"><ele>273.5</ele><time>2026-03-30T13:49:34Z</time></trkpt><trkpt lat="41.91290571041503" lon="0.19227212960364917"><ele>273.0</ele><time>2026-03-30T13:49:36Z</time></trkpt><trkpt lat="41.912931399417104" lon="0.19212696598796175"><ele>272.5</ele><time>2026-03-30T13:49:38Z</time></trkpt><trkpt lat="41.912941431669765" lon="0.1920269127330463"><ele>272.0</ele><time>2026-03-30T13:49:40Z</time></trkpt><trkpt lat="41.91296017132281" lon="0.19192547763304735"><ele>271.5</ele><time>2026-03-30T13:49:42Z</time></trkpt><trkpt lat="41.91296812018564" lon="0.19183179023639366"><ele>271.0</ele><time>2026-03-30T13:49:44Z</time></trkpt><trkpt lat="41.912985604590205" lon="0.19172203290064793"><ele>271.0</ele><time>2026-03-30T13:49:46Z</time></trkpt><trkpt lat="41.91300939437371" lon="0.1916172538272825"><ele>271.0</ele><time>2026-03-30T13:49:49Z</time></trkpt><trkpt lat="41.913053080103325" lon="0.19152819803866258"><ele>271.0</ele><time>2026-03-30T13:49:51Z</time></trkpt><trkpt lat="41.913113701696034" lon="0.19138718874252342"><ele>271.0</ele><time>2026-03-30T13:49:53Z</time></trkpt><trkpt lat="41.9131335087964" lon="0.19129233860998954"><ele>271.0</ele><time>2026-03-30T13:49:54Z</time></trkpt><trkpt lat="41.91315282705478" lon="0.1911755431477464"><ele>271.0</ele><time>2026-03-30T13:49:55Z</time></trkpt><trkpt lat="41.91317403782969" lon="0.19107019702984215"><ele>271.0</ele><time>2026-03-30T13:49:56Z</time></trkpt><trkpt lat="41.913211124793335" lon="0.19095610807565813"><ele>271.0</ele><time>2026-03-30T13:49:57Z</time></trkpt><trkpt lat="41.91325514935261" lon="0.1908543326475711"><ele>271.0</ele><time>2026-03-30T13:49:58Z</time></trkpt><trkpt lat="41.91331200548657" lon="0.19074535377600413"><ele>271.0</ele><time>2026-03-30T13:49:59Z</time></trkpt><trkpt lat="41.913372982707095" lon="0.19063641818290716"><ele>271.0</ele><time>2026-03-30T13:50:00Z</time></trkpt><trkpt lat="41.91343222905624" lon="0.19054020936249022"><ele>271.0</ele><time>2026-03-30T13:50:01Z</time></trkpt><trkpt lat="41.91348700133996" lon="0.19045271060366256"><ele>271.0</ele><time>2026-03-30T13:50:02Z</time></trkpt><trkpt lat="41.91354228017738" lon="0.19036962792969805"><ele>271.0</ele><time>2026-03-30T13:50:03Z</time></trkpt><trkpt lat="41.913600913746194" lon="0.19028561896116966"><ele>271.0</ele><time>2026-03-30T13:50:04Z</time></trkpt><trkpt lat="41.913658710225135" lon="0.19020982616826265"><ele>271.0</ele><time>2026-03-30T13:50:05Z</time></trkpt><trkpt lat="41.91371040529645" lon="0.19014231432251058"><ele>271.0</ele><time>2026-03-30T13:50:06Z</time></trkpt><trkpt lat="41.913763909577234" lon="0.1900740557737737"><ele>271.0</ele><time>2026-03-30T13:50:07Z</time></trkpt><trkpt lat="41.91385316112399" lon="0.18995423494466593"><ele>271.0</ele><time>2026-03-30T13:50:09Z</time></trkpt><trkpt lat="41.913901085720234" lon="0.18988927347954437"><ele>271.0</ele><time>2026-03-30T13:50:10Z</time></trkpt><trkpt lat="41.91394885259984" lon="0.18982603728636022"><ele>271.0</ele><time>2026-03-30T13:50:11Z</time></trkpt><trkpt lat="41.91400445581113" lon="0.18975574399298809"><ele>271.0</ele><time>2026-03-30T13:50:12Z</time></trkpt><trkpt lat="41.9140631770034" lon="0.1896822124710325"><ele>271.0</ele><time>2026-03-30T13:50:13Z</time></trkpt><trkpt lat="41.914125012799644" lon="0.18959730773353842"><ele>271.40000000000003</ele><time>2026-03-30T13:50:14Z</time></trkpt><trkpt lat="41.91418844948652" lon="0.18949761512241806"><ele>271.8</ele><time>2026-03-30T13:50:15Z</time></trkpt><trkpt lat="41.91427382892717" lon="0.1894158707175416"><ele>272.20000000000005</ele><time>2026-03-30T13:50:16Z</time></trkpt><trkpt lat="41.914349382487345" lon="0.18931983826354945"><ele>272.6</ele><time>2026-03-30T13:50:17Z</time></trkpt><trkpt lat="41.91442893221814" lon="0.18921872623232808"><ele>273.0</ele><time>2026-03-30T13:50:18Z</time></trkpt><trkpt lat="41.91450848234999" lon="0.18911761385702913"><ele>272.5</ele><time>2026-03-30T13:50:19Z</time></trkpt><trkpt lat="41.91458637463171" lon="0.18900804559967774"><ele>272.0</ele><time>2026-03-30T13:50:20Z</time></trkpt><trkpt lat="41.91467468134842" lon="0.18890712950554814"><ele>271.5</ele><time>2026-03-30T13:50:21Z</time></trkpt><trkpt lat="41.91475742082195" lon="0.18879549813047128"><ele>271.0</ele><time>2026-03-30T13:50:22Z</time></trkpt><trkpt lat="41.914844479544115" lon="0.1886839338235162"><ele>271.0</ele><time>2026-03-30T13:50:23Z</time></trkpt><trkpt lat="41.91493030758458" lon="0.18857594592821078"><ele>271.0</ele><time>2026-03-30T13:50:24Z</time></trkpt><trkpt lat="41.91501693783805" lon="0.18846459879899383"><ele>271.0</ele><time>2026-03-30T13:50:25Z</time></trkpt><trkpt lat="41.91510787606959" lon="0.188354725952678"><ele>271.0</ele><time>2026-03-30T13:50:26Z</time></trkpt><trkpt lat="41.91519337420658" lon="0.18824085382405062"><ele>270.5</ele><time>2026-03-30T13:50:27Z</time></trkpt><trkpt lat="41.91528348954127" lon="0.18812584256520168"><ele>270.0</ele><time>2026-03-30T13:50:28Z</time></trkpt><trkpt lat="41.91537020579987" lon="0.1880124511086537"><ele>269.5</ele><time>2026-03-30T13:50:29Z</time></trkpt><trkpt lat="41.91545106009355" lon="0.1879097836662184"><ele>269.0</ele><time>2026-03-30T13:50:30Z</time></trkpt><trkpt lat="41.915524623284625" lon="0.18781176203577307"><ele>269.0</ele><time>2026-03-30T13:50:31Z</time></trkpt><trkpt lat="41.91558904208448" lon="0.1877225186456655"><ele>269.0</ele><time>2026-03-30T13:50:32Z</time></trkpt><trkpt lat="41.9156434254491" lon="0.1876437276645086"><ele>269.0</ele><time>2026-03-30T13:50:33Z</time></trkpt><trkpt lat="41.915692575006524" lon="0.18757432862679216"><ele>269.0</ele><time>2026-03-30T13:50:34Z</time></trkpt><trkpt lat="41.91574144952415" lon="0.1875198595553951"><ele>269.0</ele><time>2026-03-30T13:50:35Z</time></trkpt><trkpt lat="41.91585186825808" lon="0.1874521708377092"><ele>269.0</ele><time>2026-03-30T13:50:37Z</time></trkpt><trkpt lat="41.91589737312567" lon="0.18739142610071152"><ele>268.6666666666667</ele><time>2026-03-30T13:50:38Z</time></trkpt><trkpt lat="41.91593132535201" lon="0.1873055565899628"><ele>268.33333333333337</ele><time>2026-03-30T13:50:39Z</time></trkpt><trkpt lat="41.91594664262093" lon="0.18719472530440617"><ele>268.0</ele><time>2026-03-30T13:50:40Z</time></trkpt><trkpt lat="41.91597704839426" lon="0.18708881514553286"><ele>267.6666666666667</ele><time>2026-03-30T13:50:41Z</time></trkpt><trkpt lat="41.91602988370704" lon="0.18698027152338306"><ele>267.3333333333333</ele><time>2026-03-30T13:50:42Z</time></trkpt><trkpt lat="41.91609315549658" lon="0.1868625279879191"><ele>267.0</ele><time>2026-03-30T13:50:43Z</time></trkpt><trkpt lat="41.91616430902874" lon="0.1867356242182392"><ele>267.0</ele><time>2026-03-30T13:50:44Z</time></trkpt><trkpt lat="41.91624504109193" lon="0.18659989352906323"><ele>267.0</ele><time>2026-03-30T13:50:45Z</time></trkpt><trkpt lat="41.916323742424034" lon="0.18646389299534974"><ele>267.0</ele><time>2026-03-30T13:50:46Z</time></trkpt><trkpt lat="41.9164003919935" lon="0.18633696353700177"><ele>267.0</ele><time>2026-03-30T13:50:47Z</time></trkpt><trkpt lat="41.91646802495743" lon="0.1862213646423779"><ele>267.0</ele><time>2026-03-30T13:50:48Z</time></trkpt><trkpt lat="41.91653151293014" lon="0.18611204033638326"><ele>267.0</ele><time>2026-03-30T13:50:49Z</time></trkpt><trkpt lat="41.91659786463044" lon="0.18599655219541733"><ele>267.0</ele><time>2026-03-30T13:50:50Z</time></trkpt><trkpt lat="41.91666880991725" lon="0.18587336663632856"><ele>267.0</ele><time>2026-03-30T13:50:51Z</time></trkpt><trkpt lat="41.916739953628195" lon="0.1857410481426778"><ele>267.0</ele><time>2026-03-30T13:50:52Z</time></trkpt><trkpt lat="41.91680777729302" lon="0.18561821931972933"><ele>267.0</ele><time>2026-03-30T13:50:53Z</time></trkpt><trkpt lat="41.9168777997674" lon="0.18550194759705593"><ele>267.0</ele><time>2026-03-30T13:50:54Z</time></trkpt><trkpt lat="41.91695031169498" lon="0.18538334972079146"><ele>267.0</ele><time>2026-03-30T13:50:55Z</time></trkpt><trkpt lat="41.917028923150724" lon="0.18526010205898277"><ele>267.0</ele><time>2026-03-30T13:50:56Z</time></trkpt><trkpt lat="41.91710598825417" lon="0.1851284021747863"><ele>267.0</ele><time>2026-03-30T13:50:57Z</time></trkpt><trkpt lat="41.917176963592404" lon="0.184987326330407"><ele>267.0</ele><time>2026-03-30T13:50:58Z</time></trkpt><trkpt lat="41.91724483822337" lon="0.18484111994534497"><ele>267.0</ele><time>2026-03-30T13:50:59Z</time></trkpt><trkpt lat="41.91730705322509" lon="0.1846830158159627"><ele>267.0</ele><time>2026-03-30T13:51:00Z</time></trkpt><trkpt lat="41.9173613416986" lon="0.1845166369233969"><ele>266.6666666666667</ele><time>2026-03-30T13:51:01Z</time></trkpt><trkpt lat="41.91741077350337" lon="0.1843235000688449"><ele>266.33333333333337</ele><time>2026-03-30T13:51:02Z</time></trkpt><trkpt lat="41.91745614572014" lon="0.18412224801982796"><ele>266.0</ele><time>2026-03-30T13:51:03Z</time></trkpt><trkpt lat="41.91750163371541" lon="0.18392107883275302"><ele>265.6666666666667</ele><time>2026-03-30T13:51:04Z</time></trkpt><trkpt lat="41.917545932814825" lon="0.18371318895089916"><ele>265.3333333333333</ele><time>2026-03-30T13:51:05Z</time></trkpt><trkpt lat="41.91759117506896" lon="0.18349499119678447"><ele>265.0</ele><time>2026-03-30T13:51:06Z</time></trkpt><trkpt lat="41.91763968264525" lon="0.18326962509588335"><ele>264.66666666666663</ele><time>2026-03-30T13:51:07Z</time></trkpt><trkpt lat="41.91769013784518" lon="0.1830433307748302"><ele>264.3333333333333</ele><time>2026-03-30T13:51:08Z</time></trkpt><trkpt lat="41.917741286247825" lon="0.18280793758387723"><ele>264.0</ele><time>2026-03-30T13:51:09Z</time></trkpt><trkpt lat="41.917791182959924" lon="0.1825712769988395"><ele>263.3333333333333</ele><time>2026-03-30T13:51:10Z</time></trkpt><trkpt lat="41.917840462007874" lon="0.18232706543999747"><ele>262.66666666666663</ele><time>2026-03-30T13:51:11Z</time></trkpt><trkpt lat="41.91789168151681" lon="0.18208643558143886"><ele>262.0</ele><time>2026-03-30T13:51:12Z</time></trkpt><trkpt lat="41.91794295169584" lon="0.18183854323962323"><ele>262.0</ele><time>2026-03-30T13:51:13Z</time></trkpt><trkpt lat="41.91799766296032" lon="0.18160882604317513"><ele>262.0</ele><time>2026-03-30T13:51:14Z</time></trkpt><trkpt lat="41.91804460485835" lon="0.1813849584009261"><ele>262.0</ele><time>2026-03-30T13:51:15Z</time></trkpt><trkpt lat="41.91809218928768" lon="0.1811597442594012"><ele>261.3333333333333</ele><time>2026-03-30T13:51:16Z</time></trkpt><trkpt lat="41.918140168268486" lon="0.18094200247229453"><ele>260.6666666666667</ele><time>2026-03-30T13:51:17Z</time></trkpt><trkpt lat="41.9181879665372" lon="0.18071763597897292"><ele>260.0</ele><time>2026-03-30T13:51:18Z</time></trkpt><trkpt lat="41.91823805105649" lon="0.18049716752392597"><ele>260.0</ele><time>2026-03-30T13:51:19Z</time></trkpt><trkpt lat="41.91828557079187" lon="0.1802705798481692"><ele>260.0</ele><time>2026-03-30T13:51:20Z</time></trkpt><trkpt lat="41.91833248712599" lon="0.18004213669359187"><ele>260.0</ele><time>2026-03-30T13:51:21Z</time></trkpt><trkpt lat="41.918382466282395" lon="0.17980771579154983"><ele>260.6666666666667</ele><time>2026-03-30T13:51:22Z</time></trkpt><trkpt lat="41.91843251022754" lon="0.179575801398343"><ele>261.3333333333333</ele><time>2026-03-30T13:51:23Z</time></trkpt><trkpt lat="41.91847618627611" lon="0.17933219013211493"><ele>262.0</ele><time>2026-03-30T13:51:24Z</time></trkpt><trkpt lat="41.918496693690926" lon="0.17908049140584117"><ele>261.3333333333333</ele><time>2026-03-30T13:51:25Z</time></trkpt><trkpt lat="41.91849817033519" lon="0.17882457790384665"><ele>260.6666666666667</ele><time>2026-03-30T13:51:26Z</time></trkpt><trkpt lat="41.91848552816105" lon="0.17857329929720894"><ele>260.0</ele><time>2026-03-30T13:51:27Z</time></trkpt><trkpt lat="41.91847088856082" lon="0.17832427493313444"><ele>258.33333333333337</ele><time>2026-03-30T13:51:28Z</time></trkpt><trkpt lat="41.91845774756358" lon="0.17806670980985218"><ele>256.6666666666667</ele><time>2026-03-30T13:51:29Z</time></trkpt><trkpt lat="41.918448713512085" lon="0.17781866029381488"><ele>255.0</ele><time>2026-03-30T13:51:30Z</time></trkpt><trkpt lat="41.91844210988925" lon="0.17755567614078213"><ele>254.33333333333331</ele><time>2026-03-30T13:51:31Z</time></trkpt><trkpt lat="41.918432874705466" lon="0.17728441508562506"><ele>253.66666666666666</ele><time>2026-03-30T13:51:32Z</time></trkpt><trkpt lat="41.91842368930936" lon="0.17700280938401045"><ele>253.0</ele><time>2026-03-30T13:51:33Z</time></trkpt><trkpt lat="41.91841486365128" lon="0.17672371255199257"><ele>253.0</ele><time>2026-03-30T13:51:34Z</time></trkpt><trkpt lat="41.9184051820282" lon="0.17644458262368984"><ele>253.0</ele><time>2026-03-30T13:51:35Z</time></trkpt><trkpt lat="41.918395999055576" lon="0.17616361278047044"><ele>253.0</ele><time>2026-03-30T13:51:36Z</time></trkpt><trkpt lat="41.91838770464536" lon="0.17588010618277386"><ele>253.33333333333331</ele><time>2026-03-30T13:51:37Z</time></trkpt><trkpt lat="41.918379219260636" lon="0.1756027382167736"><ele>253.66666666666669</ele><time>2026-03-30T13:51:38Z</time></trkpt><trkpt lat="41.918369489010054" lon="0.1753275028301914"><ele>254.0</ele><time>2026-03-30T13:51:39Z</time></trkpt><trkpt lat="41.91836065087422" lon="0.17505389129641308"><ele>255.33333333333334</ele><time>2026-03-30T13:51:40Z</time></trkpt><trkpt lat="41.91835319164954" lon="0.17477883384361734"><ele>256.6666666666667</ele><time>2026-03-30T13:51:41Z</time></trkpt><trkpt lat="41.918346675537734" lon="0.1745027233339663"><ele>258.0</ele><time>2026-03-30T13:51:42Z</time></trkpt><trkpt lat="41.91833996556403" lon="0.17422240734395486"><ele>258.3333333333333</ele><time>2026-03-30T13:51:43Z</time></trkpt><trkpt lat="41.918336438787485" lon="0.17394519986013862"><ele>258.66666666666663</ele><time>2026-03-30T13:51:44Z</time></trkpt><trkpt lat="41.91833387000055" lon="0.17368318716457004"><ele>259.0</ele><time>2026-03-30T13:51:45Z</time></trkpt><trkpt lat="41.91833519095319" lon="0.17342530407445791"><ele>258.3333333333333</ele><time>2026-03-30T13:51:46Z</time></trkpt><trkpt lat="41.91834203000921" lon="0.1731732611349964"><ele>257.6666666666667</ele><time>2026-03-30T13:51:47Z</time></trkpt><trkpt lat="41.9183556975617" lon="0.1729358217424802"><ele>257.0</ele><time>2026-03-30T13:51:48Z</time></trkpt><trkpt lat="41.91837035057732" lon="0.1727334690015131"><ele>257.0</ele><time>2026-03-30T13:51:49Z</time></trkpt><trkpt lat="41.91838518619732" lon="0.1725584989813802"><ele>257.0</ele><time>2026-03-30T13:51:50Z</time></trkpt><trkpt lat="41.918404241175516" lon="0.17238846605886202"><ele>257.0</ele><time>2026-03-30T13:51:51Z</time></trkpt><trkpt lat="41.918451170536564" lon="0.1722383699700502"><ele>257.0</ele><time>2026-03-30T13:51:52Z</time></trkpt><trkpt lat="41.918486350451936" lon="0.17210445970344923"><ele>256.0</ele><time>2026-03-30T13:51:53Z</time></trkpt><trkpt lat="41.91851566589047" lon="0.171995831191113"><ele>255.0</ele><time>2026-03-30T13:51:54Z</time></trkpt><trkpt lat="41.91853171226488" lon="0.17188995554820796"><ele>254.0</ele><time>2026-03-30T13:51:55Z</time></trkpt><trkpt lat="41.918571902445805" lon="0.17181669543148884"><ele>253.0</ele><time>2026-03-30T13:51:56Z</time></trkpt><trkpt lat="41.918453157689655" lon="0.17154971281382908"><ele>253.2</ele><time>2026-03-30T13:51:58Z</time></trkpt><trkpt lat="41.918391309873776" lon="0.17142227146928157"><ele>253.4</ele><time>2026-03-30T13:51:59Z</time></trkpt><trkpt lat="41.918344345374834" lon="0.17132068995274344"><ele>253.59999999999997</ele><time>2026-03-30T13:52:00Z</time></trkpt><trkpt lat="41.91830712681103" lon="0.1711716828165044"><ele>253.79999999999998</ele><time>2026-03-30T13:52:01Z</time></trkpt><trkpt lat="41.91830329705627" lon="0.1710023095836691"><ele>254.0</ele><time>2026-03-30T13:52:02Z</time></trkpt><trkpt lat="41.918282457249106" lon="0.17082207121295"><ele>254.33333333333334</ele><time>2026-03-30T13:52:03Z</time></trkpt><trkpt lat="41.918243293579124" lon="0.17062514786839572"><ele>254.66666666666669</ele><time>2026-03-30T13:52:04Z</time></trkpt><trkpt lat="41.91817829950906" lon="0.1704233438489577"><ele>255.0</ele><time>2026-03-30T13:52:05Z</time></trkpt><trkpt lat="41.918093781912475" lon="0.17022356539660832"><ele>255.0</ele><time>2026-03-30T13:52:06Z</time></trkpt><trkpt lat="41.91799592553477" lon="0.1700346678171287"><ele>255.0</ele><time>2026-03-30T13:52:07Z</time></trkpt><trkpt lat="41.91788641208035" lon="0.16984757886566904"><ele>255.0</ele><time>2026-03-30T13:52:08Z</time></trkpt><trkpt lat="41.91777522903473" lon="0.169663318162557"><ele>255.33333333333331</ele><time>2026-03-30T13:52:09Z</time></trkpt><trkpt lat="41.91766592443103" lon="0.16948070722307257"><ele>255.66666666666666</ele><time>2026-03-30T13:52:10Z</time></trkpt><trkpt lat="41.91755922574661" lon="0.16929818526719645"><ele>256.0</ele><time>2026-03-30T13:52:11Z</time></trkpt><trkpt lat="41.91745627747722" lon="0.16911493683864387"><ele>257.3333333333333</ele><time>2026-03-30T13:52:12Z</time></trkpt><trkpt lat="41.917352076468596" lon="0.16893146296739153"><ele>258.6666666666667</ele><time>2026-03-30T13:52:13Z</time></trkpt><trkpt lat="41.91724888769182" lon="0.16874860849567205"><ele>260.0</ele><time>2026-03-30T13:52:14Z</time></trkpt><trkpt lat="41.917144288363254" lon="0.1685605995043265"><ele>260.0</ele><time>2026-03-30T13:52:15Z</time></trkpt><trkpt lat="41.91703887598664" lon="0.16838267226895132"><ele>260.0</ele><time>2026-03-30T13:52:16Z</time></trkpt><trkpt lat="41.916933258692545" lon="0.16821159143303174"><ele>260.0</ele><time>2026-03-30T13:52:17Z</time></trkpt><trkpt lat="41.91680533526723" lon="0.16803964075222277"><ele>260.0</ele><time>2026-03-30T13:52:18Z</time></trkpt><trkpt lat="41.91663577747646" lon="0.1678801113440256"><ele>260.0</ele><time>2026-03-30T13:52:19Z</time></trkpt><trkpt lat="41.91643527929227" lon="0.16775333212075427"><ele>260.0</ele><time>2026-03-30T13:52:20Z</time></trkpt><trkpt lat="41.916219920777095" lon="0.16764163317610575"><ele>260.0</ele><time>2026-03-30T13:52:21Z</time></trkpt><trkpt lat="41.91597982054141" lon="0.16750339067933667"><ele>260.0</ele><time>2026-03-30T13:52:22Z</time></trkpt><trkpt lat="41.915744729200036" lon="0.1673459931550252"><ele>262.0</ele><time>2026-03-30T13:52:23Z</time></trkpt><trkpt lat="41.91549860009772" lon="0.16719357199043092"><ele>264.0</ele><time>2026-03-30T13:52:24Z</time></trkpt><trkpt lat="41.91525462104876" lon="0.16704253229129615"><ele>262.0</ele><time>2026-03-30T13:52:25Z</time></trkpt><trkpt lat="41.91501623342033" lon="0.16688349923560378"><ele>260.0</ele><time>2026-03-30T13:52:26Z</time></trkpt><trkpt lat="41.914779149195915" lon="0.16671955858339732"><ele>260.0</ele><time>2026-03-30T13:52:27Z</time></trkpt><trkpt lat="41.91454773696153" lon="0.1665652256220457"><ele>260.0</ele><time>2026-03-30T13:52:28Z</time></trkpt><trkpt lat="41.914321262821275" lon="0.16641872384848147"><ele>263.0</ele><time>2026-03-30T13:52:29Z</time></trkpt><trkpt lat="41.91411037421824" lon="0.16628991394056816"><ele>266.0</ele><time>2026-03-30T13:52:30Z</time></trkpt><trkpt lat="41.913902687041286" lon="0.16620154118170016"><ele>269.0</ele><time>2026-03-30T13:52:31Z</time></trkpt><trkpt lat="41.91368864506117" lon="0.16616535131181653"><ele>269.0</ele><time>2026-03-30T13:52:32Z</time></trkpt><trkpt lat="41.91347243610295" lon="0.1661831903670004"><ele>269.0</ele><time>2026-03-30T13:52:33Z</time></trkpt><trkpt lat="41.91326511484433" lon="0.16613260647669206"><ele>269.0</ele><time>2026-03-30T13:52:34Z</time></trkpt><trkpt lat="41.913054883342866" lon="0.16604783897299502"><ele>267.0</ele><time>2026-03-30T13:52:35Z</time></trkpt><trkpt lat="41.912828451987586" lon="0.16595968627740884"><ele>265.0</ele><time>2026-03-30T13:52:36Z</time></trkpt><trkpt lat="41.91261821648853" lon="0.1658624238582436"><ele>265.0</ele><time>2026-03-30T13:52:37Z</time></trkpt><trkpt lat="41.91240905945809" lon="0.1657883862447877"><ele>265.0</ele><time>2026-03-30T13:52:38Z</time></trkpt><trkpt lat="41.912203423951226" lon="0.1657375590384132"><ele>265.0</ele><time>2026-03-30T13:52:39Z</time></trkpt><trkpt lat="41.911999614131595" lon="0.1656651461600868"><ele>269.66666666666663</ele><time>2026-03-30T13:52:40Z</time></trkpt><trkpt lat="41.91178930314742" lon="0.16559953930237375"><ele>274.3333333333333</ele><time>2026-03-30T13:52:41Z</time></trkpt><trkpt lat="41.91157471109048" lon="0.16553640075149323"><ele>279.0</ele><time>2026-03-30T13:52:42Z</time></trkpt><trkpt lat="41.91136246558018" lon="0.1654725914705542"><ele>279.0</ele><time>2026-03-30T13:52:43Z</time></trkpt><trkpt lat="41.91115906499508" lon="0.1653801097703545"><ele>279.0</ele><time>2026-03-30T13:52:44Z</time></trkpt><trkpt lat="41.91096538518148" lon="0.16526853986828083"><ele>279.0</ele><time>2026-03-30T13:52:45Z</time></trkpt><trkpt lat="41.91077688285929" lon="0.16513894784246133"><ele>274.6666666666667</ele><time>2026-03-30T13:52:46Z</time></trkpt><trkpt lat="41.91057974178892" lon="0.1650251812317438"><ele>270.33333333333337</ele><time>2026-03-30T13:52:47Z</time></trkpt><trkpt lat="41.910378471110775" lon="0.16493392709091226"><ele>266.0</ele><time>2026-03-30T13:52:48Z</time></trkpt><trkpt lat="41.91016340320848" lon="0.16488717015860088"><ele>264.6666666666667</ele><time>2026-03-30T13:52:49Z</time></trkpt><trkpt lat="41.90994740717437" lon="0.16486309515198105"><ele>263.3333333333333</ele><time>2026-03-30T13:52:50Z</time></trkpt><trkpt lat="41.909733836940724" lon="0.16484011074111904"><ele>262.0</ele><time>2026-03-30T13:52:51Z</time></trkpt><trkpt lat="41.90952240349579" lon="0.16482518112549133"><ele>263.66666666666663</ele><time>2026-03-30T13:52:52Z</time></trkpt><trkpt lat="41.90931074224052" lon="0.16484348002335672"><ele>265.3333333333333</ele><time>2026-03-30T13:52:53Z</time></trkpt><trkpt lat="41.909108816734744" lon="0.16490671378601018"><ele>267.0</ele><time>2026-03-30T13:52:54Z</time></trkpt><trkpt lat="41.9089011327238" lon="0.1648991910783836"><ele>267.0</ele><time>2026-03-30T13:52:55Z</time></trkpt><trkpt lat="41.90870104125731" lon="0.16491659823561383"><ele>267.0</ele><time>2026-03-30T13:52:56Z</time></trkpt><trkpt lat="41.90850422922839" lon="0.16489835183225954"><ele>267.0</ele><time>2026-03-30T13:52:57Z</time></trkpt><trkpt lat="41.90832764347254" lon="0.1648818529469721"><ele>272.3333333333333</ele><time>2026-03-30T13:52:58Z</time></trkpt><trkpt lat="41.908185093749836" lon="0.16482233651922598"><ele>277.66666666666663</ele><time>2026-03-30T13:52:59Z</time></trkpt><trkpt lat="41.908029459408816" lon="0.16471642737820189"><ele>283.0</ele><time>2026-03-30T13:53:00Z</time></trkpt><trkpt lat="41.9079236251805" lon="0.16455290356419205"><ele>283.0</ele><time>2026-03-30T13:53:01Z</time></trkpt><trkpt lat="41.90786134335793" lon="0.16432985845108608"><ele>283.0</ele><time>2026-03-30T13:53:02Z</time></trkpt><trkpt lat="41.9077897468741" lon="0.1640857294192697"><ele>283.0</ele><time>2026-03-30T13:53:03Z</time></trkpt><trkpt lat="41.90775082970807" lon="0.16384267293540555"><ele>283.66666666666663</ele><time>2026-03-30T13:53:04Z</time></trkpt><trkpt lat="41.907720394649516" lon="0.16362567453470586"><ele>284.3333333333333</ele><time>2026-03-30T13:53:05Z</time></trkpt><trkpt lat="41.90773679299242" lon="0.16342156372836483"><ele>285.0</ele><time>2026-03-30T13:53:06Z</time></trkpt><trkpt lat="41.90780963996577" lon="0.1632134592110094"><ele>285.3333333333333</ele><time>2026-03-30T13:53:07Z</time></trkpt><trkpt lat="41.90790099325544" lon="0.16302432041747095"><ele>285.66666666666663</ele><time>2026-03-30T13:53:08Z</time></trkpt><trkpt lat="41.907955800399336" lon="0.1628181374777659"><ele>286.0</ele><time>2026-03-30T13:53:09Z</time></trkpt><trkpt lat="41.90795626591026" lon="0.16258376988855483"><ele>287.0</ele><time>2026-03-30T13:53:10Z</time></trkpt><trkpt lat="41.907909254196504" lon="0.16234468808504934"><ele>288.0</ele><time>2026-03-30T13:53:11Z</time></trkpt><trkpt lat="41.90787820854336" lon="0.16211594230638518"><ele>289.0</ele><time>2026-03-30T13:53:12Z</time></trkpt><trkpt lat="41.907906326963655" lon="0.16188741005981538"><ele>289.0</ele><time>2026-03-30T13:53:13Z</time></trkpt><trkpt lat="41.907966844541306" lon="0.161660880612481"><ele>289.0</ele><time>2026-03-30T13:53:14Z</time></trkpt><trkpt lat="41.907984352707295" lon="0.1614323684689611"><ele>289.0</ele><time>2026-03-30T13:53:15Z</time></trkpt><trkpt lat="41.90794554089105" lon="0.16117622202557375"><ele>289.0</ele><time>2026-03-30T13:53:16Z</time></trkpt><trkpt lat="41.90789485022137" lon="0.16091629370895244"><ele>289.0</ele><time>2026-03-30T13:53:17Z</time></trkpt><trkpt lat="41.90784600837708" lon="0.1606755531515609"><ele>289.0</ele><time>2026-03-30T13:53:18Z</time></trkpt><trkpt lat="41.907802612641966" lon="0.16044177822348432"><ele>288.66666666666663</ele><time>2026-03-30T13:53:19Z</time></trkpt><trkpt lat="41.907759977663055" lon="0.16021540021639935"><ele>288.3333333333333</ele><time>2026-03-30T13:53:20Z</time></trkpt><trkpt lat="41.9077151307668" lon="0.15998195443481145"><ele>288.0</ele><time>2026-03-30T13:53:21Z</time></trkpt><trkpt lat="41.90766951748835" lon="0.15975099007810684"><ele>288.0</ele><time>2026-03-30T13:53:22Z</time></trkpt><trkpt lat="41.90762836296206" lon="0.1595141406928122"><ele>288.0</ele><time>2026-03-30T13:53:23Z</time></trkpt><trkpt lat="41.90758395143175" lon="0.15926073688390832"><ele>288.0</ele><time>2026-03-30T13:53:24Z</time></trkpt><trkpt lat="41.90753851779411" lon="0.15900321557747593"><ele>288.0</ele><time>2026-03-30T13:53:25Z</time></trkpt><trkpt lat="41.90748888851126" lon="0.15872426594755562"><ele>288.0</ele><time>2026-03-30T13:53:26Z</time></trkpt><trkpt lat="41.90743670552096" lon="0.15843471114130717"><ele>288.0</ele><time>2026-03-30T13:53:27Z</time></trkpt><trkpt lat="41.907383040704175" lon="0.15814091444408662"><ele>288.0</ele><time>2026-03-30T13:53:28Z</time></trkpt><trkpt lat="41.907332320710395" lon="0.15785534809734833"><ele>288.0</ele><time>2026-03-30T13:53:29Z</time></trkpt><trkpt lat="41.907280423180794" lon="0.15758229068657767"><ele>288.0</ele><time>2026-03-30T13:53:30Z</time></trkpt><trkpt lat="41.90722336918636" lon="0.15730835968398765"><ele>288.0</ele><time>2026-03-30T13:53:31Z</time></trkpt><trkpt lat="41.907155784256496" lon="0.1570433211683141"><ele>288.0</ele><time>2026-03-30T13:53:32Z</time></trkpt><trkpt lat="41.90707723820385" lon="0.15678404657660477"><ele>288.0</ele><time>2026-03-30T13:53:33Z</time></trkpt><trkpt lat="41.906988884524125" lon="0.1565255132307104"><ele>288.0</ele><time>2026-03-30T13:53:34Z</time></trkpt><trkpt lat="41.90688493760373" lon="0.15626794537130775"><ele>288.0</ele><time>2026-03-30T13:53:35Z</time></trkpt><trkpt lat="41.90677218364481" lon="0.1560251049196105"><ele>288.0</ele><time>2026-03-30T13:53:36Z</time></trkpt><trkpt lat="41.90664768770929" lon="0.15578755084920784"><ele>288.0</ele><time>2026-03-30T13:53:37Z</time></trkpt><trkpt lat="41.906518551709745" lon="0.15555816576694273"><ele>288.0</ele><time>2026-03-30T13:53:38Z</time></trkpt><trkpt lat="41.90638599458747" lon="0.15533432369902736"><ele>288.0</ele><time>2026-03-30T13:53:39Z</time></trkpt><trkpt lat="41.90623868466825" lon="0.15512150774306943"><ele>288.0</ele><time>2026-03-30T13:53:40Z</time></trkpt><trkpt lat="41.906081147479476" lon="0.15491857533430722"><ele>288.0</ele><time>2026-03-30T13:53:41Z</time></trkpt><trkpt lat="41.90592051528613" lon="0.1547210744046134"><ele>288.0</ele><time>2026-03-30T13:53:42Z</time></trkpt><trkpt lat="41.90576421117472" lon="0.15452905648831178"><ele>288.0</ele><time>2026-03-30T13:53:43Z</time></trkpt><trkpt lat="41.90560600460907" lon="0.15433575413187875"><ele>288.0</ele><time>2026-03-30T13:53:44Z</time></trkpt><trkpt lat="41.905452141066" lon="0.15414515612186278"><ele>288.0</ele><time>2026-03-30T13:53:45Z</time></trkpt><trkpt lat="41.9052964291943" lon="0.15395499094278906"><ele>288.0</ele><time>2026-03-30T13:53:46Z</time></trkpt><trkpt lat="41.90514288986529" lon="0.15377248952309175"><ele>288.0</ele><time>2026-03-30T13:53:47Z</time></trkpt><trkpt lat="41.90499264020694" lon="0.15358855271619967"><ele>288.0</ele><time>2026-03-30T13:53:48Z</time></trkpt><trkpt lat="41.90484854292849" lon="0.15340776767331935"><ele>288.0</ele><time>2026-03-30T13:53:49Z</time></trkpt><trkpt lat="41.90471905287915" lon="0.15324660798534548"><ele>288.0</ele><time>2026-03-30T13:53:50Z</time></trkpt><trkpt lat="41.90448148113296" lon="0.15295320514488464"><ele>288.0</ele><time>2026-03-30T13:53:52Z</time></trkpt><trkpt lat="41.90437095445701" lon="0.1528230625499671"><ele>288.0</ele><time>2026-03-30T13:53:53Z</time></trkpt><trkpt lat="41.90426193655008" lon="0.15269704859401773"><ele>288.0</ele><time>2026-03-30T13:53:54Z</time></trkpt><trkpt lat="41.90416978059505" lon="0.1525762652804922"><ele>288.0</ele><time>2026-03-30T13:53:55Z</time></trkpt><trkpt lat="41.904094642118785" lon="0.1524525239138714"><ele>288.0</ele><time>2026-03-30T13:53:56Z</time></trkpt><trkpt lat="41.90405448729933" lon="0.15231311461352912"><ele>288.0</ele><time>2026-03-30T13:53:57Z</time></trkpt><trkpt lat="41.90406165846528" lon="0.15217375654607745"><ele>288.0</ele><time>2026-03-30T13:53:58Z</time></trkpt><trkpt lat="41.904063241750826" lon="0.1520497313485205"><ele>288.0</ele><time>2026-03-30T13:53:59Z</time></trkpt><trkpt lat="41.90401189641143" lon="0.151921215619889"><ele>288.0</ele><time>2026-03-30T13:54:00Z</time></trkpt><trkpt lat="41.90391732809231" lon="0.15181855632431948"><ele>288.0</ele><time>2026-03-30T13:54:01Z</time></trkpt><trkpt lat="41.903800061741556" lon="0.15175985843518985"><ele>288.0</ele><time>2026-03-30T13:54:02Z</time></trkpt><trkpt lat="41.90367700267632" lon="0.15177957796842956"><ele>288.0</ele><time>2026-03-30T13:54:03Z</time></trkpt><trkpt lat="41.90358185542808" lon="0.15187627776822535"><ele>288.0</ele><time>2026-03-30T13:54:04Z</time></trkpt><trkpt lat="41.903505232513496" lon="0.1519658324846834"><ele>288.0</ele><time>2026-03-30T13:54:05Z</time></trkpt><trkpt lat="41.90352396031147" lon="0.15215807232185674"><ele>288.0</ele><time>2026-03-30T13:54:06Z</time></trkpt><trkpt lat="41.903563866268556" lon="0.1523013491862362"><ele>288.0</ele><time>2026-03-30T13:54:07Z</time></trkpt><trkpt lat="41.90362802984598" lon="0.15240878460527135"><ele>288.0</ele><time>2026-03-30T13:54:08Z</time></trkpt><trkpt lat="41.903714951120484" lon="0.15248289085977793"><ele>288.0</ele><time>2026-03-30T13:54:09Z</time></trkpt><trkpt lat="41.90382059106323" lon="0.15249266218702484"><ele>288.0</ele><time>2026-03-30T13:54:10Z</time></trkpt><trkpt lat="41.90392598260381" lon="0.15245407266703492"><ele>288.0</ele><time>2026-03-30T13:54:11Z</time></trkpt><trkpt lat="41.904012618370054" lon="0.15236466855416983"><ele>288.0</ele><time>2026-03-30T13:54:12Z</time></trkpt><trkpt lat="41.90406949836414" lon="0.1522346999734362"><ele>288.0</ele><time>2026-03-30T13:54:13Z</time></trkpt><trkpt lat="41.904083908492346" lon="0.15208049742446184"><ele>288.0</ele><time>2026-03-30T13:54:14Z</time></trkpt><trkpt lat="41.904053526312396" lon="0.15193214076750888"><ele>288.0</ele><time>2026-03-30T13:54:15Z</time></trkpt><trkpt lat="41.90397786071512" lon="0.15181797243136672"><ele>288.0</ele><time>2026-03-30T13:54:16Z</time></trkpt><trkpt lat="41.903876633616754" lon="0.15174774872457653"><ele>288.0</ele><time>2026-03-30T13:54:17Z</time></trkpt><trkpt lat="41.90376412008196" lon="0.15173512896727348"><ele>288.0</ele><time>2026-03-30T13:54:18Z</time></trkpt><trkpt lat="41.90365619554443" lon="0.15178951650533154"><ele>288.0</ele><time>2026-03-30T13:54:19Z</time></trkpt><trkpt lat="41.90357022416244" lon="0.1519003021131082"><ele>288.0</ele><time>2026-03-30T13:54:20Z</time></trkpt><trkpt lat="41.90352427007678" lon="0.152051135168228"><ele>288.0</ele><time>2026-03-30T13:54:21Z</time></trkpt><trkpt lat="41.90352423958514" lon="0.15221281540546955"><ele>288.0</ele><time>2026-03-30T13:54:22Z</time></trkpt><trkpt lat="41.90357441101867" lon="0.15235643730778262"><ele>288.0</ele><time>2026-03-30T13:54:23Z</time></trkpt><trkpt lat="41.90366135420212" lon="0.1524578564341607"><ele>288.0</ele><time>2026-03-30T13:54:24Z</time></trkpt><trkpt lat="41.90376013217902" lon="0.15248914950903242"><ele>288.0</ele><time>2026-03-30T13:54:25Z</time></trkpt><trkpt lat="41.903853746981575" lon="0.15247347671687234"><ele>288.0</ele><time>2026-03-30T13:54:26Z</time></trkpt><trkpt lat="41.903931598263355" lon="0.15242115697668682"><ele>288.0</ele><time>2026-03-30T13:54:27Z</time></trkpt><trkpt lat="41.9040026322187" lon="0.15233565269731905"><ele>288.0</ele><time>2026-03-30T13:54:28Z</time></trkpt><trkpt lat="41.904077985724456" lon="0.15224435579781603"><ele>288.0</ele><time>2026-03-30T13:54:29Z</time></trkpt><trkpt lat="41.904113831425185" lon="0.15208762707409515"><ele>288.0</ele><time>2026-03-30T13:54:30Z</time></trkpt><trkpt lat="41.90414094922762" lon="0.1519553825017264"><ele>288.0</ele><time>2026-03-30T13:54:31Z</time></trkpt><trkpt lat="41.90429670919461" lon="0.15190507750770643"><ele>287.25</ele><time>2026-03-30T13:54:32Z</time></trkpt><trkpt lat="41.90441951202396" lon="0.15186238181376543"><ele>286.5</ele><time>2026-03-30T13:54:33Z</time></trkpt><trkpt lat="41.904543391875656" lon="0.15180417466714569"><ele>285.75</ele><time>2026-03-30T13:54:34Z</time></trkpt><trkpt lat="41.90471071173932" lon="0.15172624971244061"><ele>285.0</ele><time>2026-03-30T13:54:35Z</time></trkpt><trkpt lat="41.90489475969855" lon="0.15165315253408743"><ele>285.3333333333333</ele><time>2026-03-30T13:54:36Z</time></trkpt><trkpt lat="41.905094931171845" lon="0.1515702213404899"><ele>285.66666666666663</ele><time>2026-03-30T13:54:37Z</time></trkpt><trkpt lat="41.90530544434998" lon="0.1514803385594808"><ele>286.0</ele><time>2026-03-30T13:54:38Z</time></trkpt><trkpt lat="41.90552157597077" lon="0.151388640487005"><ele>286.5</ele><time>2026-03-30T13:54:39Z</time></trkpt><trkpt lat="41.905739128580755" lon="0.1513000562333899"><ele>287.0</ele><time>2026-03-30T13:54:40Z</time></trkpt><trkpt lat="41.905969871971855" lon="0.1512056796823578"><ele>287.5</ele><time>2026-03-30T13:54:41Z</time></trkpt><trkpt lat="41.90620272854318" lon="0.15110869554425913"><ele>288.0</ele><time>2026-03-30T13:54:42Z</time></trkpt><trkpt lat="41.90642322133678" lon="0.15101570143773085"><ele>288.0</ele><time>2026-03-30T13:54:43Z</time></trkpt><trkpt lat="41.90662433190302" lon="0.15092208081326777"><ele>288.0</ele><time>2026-03-30T13:54:44Z</time></trkpt><trkpt lat="41.90682518169625" lon="0.1508292426453595"><ele>288.0</ele><time>2026-03-30T13:54:45Z</time></trkpt><trkpt lat="41.90701901218974" lon="0.15073560542087028"><ele>288.0</ele><time>2026-03-30T13:54:46Z</time></trkpt><trkpt lat="41.90721067798748" lon="0.15061634934603504"><ele>288.0</ele><time>2026-03-30T13:54:47Z</time></trkpt><trkpt lat="41.907396916732644" lon="0.15047586909833338"><ele>288.0</ele><time>2026-03-30T13:54:48Z</time></trkpt><trkpt lat="41.90757718938199" lon="0.1503299815807125"><ele>288.0</ele><time>2026-03-30T13:54:49Z</time></trkpt><trkpt lat="41.907735019987385" lon="0.15018763762608214"><ele>288.0</ele><time>2026-03-30T13:54:50Z</time></trkpt><trkpt lat="41.90787862376144" lon="0.15004616303004364"><ele>288.0</ele><time>2026-03-30T13:54:51Z</time></trkpt><trkpt lat="41.908013051204186" lon="0.14990749756074875"><ele>288.25</ele><time>2026-03-30T13:54:52Z</time></trkpt><trkpt lat="41.90813523319002" lon="0.14977020359827775"><ele>288.5</ele><time>2026-03-30T13:54:53Z</time></trkpt><trkpt lat="41.9082389147452" lon="0.14963834077629423"><ele>288.75</ele><time>2026-03-30T13:54:54Z</time></trkpt><trkpt lat="41.90832855117954" lon="0.14951437846469925"><ele>289.0</ele><time>2026-03-30T13:54:55Z</time></trkpt><trkpt lat="41.908412084059464" lon="0.1494014478656066"><ele>289.0</ele><time>2026-03-30T13:54:56Z</time></trkpt><trkpt lat="41.908484786488415" lon="0.14929433782277274"><ele>289.0</ele><time>2026-03-30T13:54:57Z</time></trkpt><trkpt lat="41.908580105484894" lon="0.1492023639166087"><ele>289.0</ele><time>2026-03-30T13:54:58Z</time></trkpt><trkpt lat="41.908664564740356" lon="0.14911926276840148"><ele>289.0</ele><time>2026-03-30T13:54:59Z</time></trkpt><trkpt lat="41.90879167748953" lon="0.1491379344458939"><ele>289.0</ele><time>2026-03-30T13:55:00Z</time></trkpt><trkpt lat="41.90889537675455" lon="0.1491085660855853"><ele>289.0</ele><time>2026-03-30T13:55:01Z</time></trkpt><trkpt lat="41.90898181530131" lon="0.1490236929255405"><ele>289.0</ele><time>2026-03-30T13:55:02Z</time></trkpt><trkpt lat="41.90903435827034" lon="0.14889728707951233"><ele>289.0</ele><time>2026-03-30T13:55:03Z</time></trkpt><trkpt lat="41.909040128598704" lon="0.14875109755367047"><ele>289.0</ele><time>2026-03-30T13:55:04Z</time></trkpt><trkpt lat="41.90900762701737" lon="0.14860988739253567"><ele>288.75</ele><time>2026-03-30T13:55:05Z</time></trkpt><trkpt lat="41.90893867186419" lon="0.14847110842459604"><ele>288.5</ele><time>2026-03-30T13:55:06Z</time></trkpt><trkpt lat="41.908824770725836" lon="0.14839511712617934"><ele>288.25</ele><time>2026-03-30T13:55:07Z</time></trkpt><trkpt lat="41.90881086325988" lon="0.14816676603318243"><ele>288.0</ele><time>2026-03-30T13:55:08Z</time></trkpt><trkpt lat="41.90884615693148" lon="0.14799180642021428"><ele>287.6666666666667</ele><time>2026-03-30T13:55:09Z</time></trkpt><trkpt lat="41.90887147227155" lon="0.14780074761800086"><ele>287.33333333333337</ele><time>2026-03-30T13:55:10Z</time></trkpt><trkpt lat="41.90892658336774" lon="0.14760760640874943"><ele>287.0</ele><time>2026-03-30T13:55:11Z</time></trkpt><trkpt lat="41.90896459782886" lon="0.14739517057717094"><ele>287.33333333333337</ele><time>2026-03-30T13:55:12Z</time></trkpt><trkpt lat="41.909014218094626" lon="0.14716491442645122"><ele>287.6666666666667</ele><time>2026-03-30T13:55:13Z</time></trkpt><trkpt lat="41.90908368515654" lon="0.14694227140152333"><ele>288.0</ele><time>2026-03-30T13:55:14Z</time></trkpt><trkpt lat="41.90915074067313" lon="0.14673574878712387"><ele>288.0</ele><time>2026-03-30T13:55:15Z</time></trkpt><trkpt lat="41.909228326199596" lon="0.14649680540742327"><ele>288.0</ele><time>2026-03-30T13:55:16Z</time></trkpt><trkpt lat="41.90931597797311" lon="0.14625351665799893"><ele>288.0</ele><time>2026-03-30T13:55:17Z</time></trkpt><trkpt lat="41.90942769916715" lon="0.14600456517745927"><ele>288.0</ele><time>2026-03-30T13:55:18Z</time></trkpt><trkpt lat="41.90956196472885" lon="0.14573940210405104"><ele>288.0</ele><time>2026-03-30T13:55:19Z</time></trkpt><trkpt lat="41.90971868872058" lon="0.14546226013928926"><ele>288.5</ele><time>2026-03-30T13:55:20Z</time></trkpt><trkpt lat="41.90987834330981" lon="0.1452119064577143"><ele>289.0</ele><time>2026-03-30T13:55:21Z</time></trkpt><trkpt lat="41.91003732909557" lon="0.14498152663473804"><ele>289.0</ele><time>2026-03-30T13:55:22Z</time></trkpt><trkpt lat="41.910191004608656" lon="0.14475402899020243"><ele>289.0</ele><time>2026-03-30T13:55:23Z</time></trkpt><trkpt lat="41.910346049114736" lon="0.14452263365661455"><ele>289.0</ele><time>2026-03-30T13:55:24Z</time></trkpt><trkpt lat="41.91050156540995" lon="0.14428533848576883"><ele>289.0</ele><time>2026-03-30T13:55:25Z</time></trkpt><trkpt lat="41.91066018558853" lon="0.14403631562946664"><ele>289.0</ele><time>2026-03-30T13:55:26Z</time></trkpt><trkpt lat="41.9108216282438" lon="0.14378988934655973"><ele>289.0</ele><time>2026-03-30T13:55:27Z</time></trkpt><trkpt lat="41.91098793541525" lon="0.14354730260964974"><ele>289.0</ele><time>2026-03-30T13:55:28Z</time></trkpt><trkpt lat="41.91114899124625" lon="0.14330475661044265"><ele>289.0</ele><time>2026-03-30T13:55:29Z</time></trkpt><trkpt lat="41.91132280091516" lon="0.14303842004616366"><ele>288.0</ele><time>2026-03-30T13:55:30Z</time></trkpt><trkpt lat="41.911470243574385" lon="0.14281270553350006"><ele>287.0</ele><time>2026-03-30T13:55:31Z</time></trkpt><trkpt lat="41.911641442402846" lon="0.14255533340452162"><ele>288.5</ele><time>2026-03-30T13:55:32Z</time></trkpt><trkpt lat="41.911801858366346" lon="0.14231207861823955"><ele>290.0</ele><time>2026-03-30T13:55:33Z</time></trkpt><trkpt lat="41.91196529274097" lon="0.14206507220495615"><ele>290.0</ele><time>2026-03-30T13:55:34Z</time></trkpt><trkpt lat="41.91212235854981" lon="0.1418206439972235"><ele>290.0</ele><time>2026-03-30T13:55:35Z</time></trkpt><trkpt lat="41.912292067852974" lon="0.14157256988053069"><ele>290.0</ele><time>2026-03-30T13:55:36Z</time></trkpt><trkpt lat="41.91245704667298" lon="0.14132491501680064"><ele>290.0</ele><time>2026-03-30T13:55:37Z</time></trkpt><trkpt lat="41.91262875270425" lon="0.14107215925569647"><ele>290.0</ele><time>2026-03-30T13:55:38Z</time></trkpt><trkpt lat="41.91277740112408" lon="0.14082620703302742"><ele>290.0</ele><time>2026-03-30T13:55:39Z</time></trkpt><trkpt lat="41.912941733614936" lon="0.14056885168220554"><ele>290.0</ele><time>2026-03-30T13:55:40Z</time></trkpt><trkpt lat="41.91310658414306" lon="0.14032221526229624"><ele>290.0</ele><time>2026-03-30T13:55:41Z</time></trkpt><trkpt lat="41.91326862885223" lon="0.1400882259124963"><ele>290.5</ele><time>2026-03-30T13:55:42Z</time></trkpt><trkpt lat="41.91344098028027" lon="0.13984324368387543"><ele>291.0</ele><time>2026-03-30T13:55:43Z</time></trkpt><trkpt lat="41.9136027317807" lon="0.1395934509256856"><ele>291.0</ele><time>2026-03-30T13:55:44Z</time></trkpt><trkpt lat="41.91376541443847" lon="0.1393413978439702"><ele>291.0</ele><time>2026-03-30T13:55:45Z</time></trkpt><trkpt lat="41.91392737348986" lon="0.13908838040831675"><ele>291.0</ele><time>2026-03-30T13:55:46Z</time></trkpt><trkpt lat="41.91410036546474" lon="0.13882760298027075"><ele>291.0</ele><time>2026-03-30T13:55:47Z</time></trkpt><trkpt lat="41.91427381839193" lon="0.13857709572578267"><ele>291.0</ele><time>2026-03-30T13:55:48Z</time></trkpt><trkpt lat="41.91445033613361" lon="0.13831194378371856"><ele>291.0</ele><time>2026-03-30T13:55:49Z</time></trkpt><trkpt lat="41.91462001015678" lon="0.13805270791599483"><ele>291.0</ele><time>2026-03-30T13:55:50Z</time></trkpt><trkpt lat="41.914796815112695" lon="0.13778268881400668"><ele>291.0</ele><time>2026-03-30T13:55:51Z</time></trkpt><trkpt lat="41.9149690552009" lon="0.13752399865227144"><ele>291.0</ele><time>2026-03-30T13:55:52Z</time></trkpt><trkpt lat="41.91513962259723" lon="0.1372691994939485"><ele>291.0</ele><time>2026-03-30T13:55:53Z</time></trkpt><trkpt lat="41.91531043769952" lon="0.13702252033908213"><ele>291.0</ele><time>2026-03-30T13:55:54Z</time></trkpt><trkpt lat="41.91547822943234" lon="0.13677181438832742"><ele>291.0</ele><time>2026-03-30T13:55:55Z</time></trkpt><trkpt lat="41.915641635348116" lon="0.13651753183504026"><ele>291.0</ele><time>2026-03-30T13:55:56Z</time></trkpt><trkpt lat="41.91580382818441" lon="0.13626766164805787"><ele>291.0</ele><time>2026-03-30T13:55:57Z</time></trkpt><trkpt lat="41.91596823130426" lon="0.1360196555182704"><ele>291.0</ele><time>2026-03-30T13:55:58Z</time></trkpt><trkpt lat="41.91613385194472" lon="0.13576183370428155"><ele>291.0</ele><time>2026-03-30T13:55:59Z</time></trkpt><trkpt lat="41.916300516986226" lon="0.135510730603137"><ele>290.5</ele><time>2026-03-30T13:56:00Z</time></trkpt><trkpt lat="41.91646616533082" lon="0.1352651387410202"><ele>290.0</ele><time>2026-03-30T13:56:01Z</time></trkpt><trkpt lat="41.91663080370827" lon="0.13501821515058918"><ele>289.5</ele><time>2026-03-30T13:56:02Z</time></trkpt><trkpt lat="41.91679611118038" lon="0.13476944640897576"><ele>289.0</ele><time>2026-03-30T13:56:03Z</time></trkpt><trkpt lat="41.91695911300086" lon="0.1345290269096555"><ele>289.0</ele><time>2026-03-30T13:56:04Z</time></trkpt><trkpt lat="41.91712649110511" lon="0.13428019037345193"><ele>289.0</ele><time>2026-03-30T13:56:05Z</time></trkpt><trkpt lat="41.91729183427544" lon="0.13403177376256098"><ele>289.0</ele><time>2026-03-30T13:56:06Z</time></trkpt><trkpt lat="41.91746193720547" lon="0.13376879874930142"><ele>289.0</ele><time>2026-03-30T13:56:07Z</time></trkpt><trkpt lat="41.91763471427358" lon="0.1335195525568917"><ele>288.5</ele><time>2026-03-30T13:56:08Z</time></trkpt><trkpt lat="41.91780424650031" lon="0.13326735149442442"><ele>288.0</ele><time>2026-03-30T13:56:09Z</time></trkpt><trkpt lat="41.91796787635964" lon="0.13300680445854562"><ele>289.0</ele><time>2026-03-30T13:56:10Z</time></trkpt><trkpt lat="41.91813651967721" lon="0.13275109331283744"><ele>290.0</ele><time>2026-03-30T13:56:11Z</time></trkpt><trkpt lat="41.918307659190255" lon="0.13249473796605804"><ele>288.0</ele><time>2026-03-30T13:56:12Z</time></trkpt><trkpt lat="41.91847910681998" lon="0.13223324918627977"><ele>286.0</ele><time>2026-03-30T13:56:13Z</time></trkpt><trkpt lat="41.91865190026712" lon="0.13197613066287137"><ele>286.0</ele><time>2026-03-30T13:56:14Z</time></trkpt><trkpt lat="41.91882391313487" lon="0.13171839227352616"><ele>286.0</ele><time>2026-03-30T13:56:15Z</time></trkpt><trkpt lat="41.91899776588472" lon="0.13145609632848132"><ele>286.0</ele><time>2026-03-30T13:56:16Z</time></trkpt><trkpt lat="41.91917408710202" lon="0.13119726304685594"><ele>286.0</ele><time>2026-03-30T13:56:17Z</time></trkpt><trkpt lat="41.919351410442744" lon="0.13093335367202344"><ele>286.5</ele><time>2026-03-30T13:56:18Z</time></trkpt><trkpt lat="41.919529449579464" lon="0.13065691360142778"><ele>287.0</ele><time>2026-03-30T13:56:19Z</time></trkpt><trkpt lat="41.91970611434838" lon="0.13039469236341922"><ele>287.0</ele><time>2026-03-30T13:56:20Z</time></trkpt><trkpt lat="41.91988078904236" lon="0.13012976258013684"><ele>287.0</ele><time>2026-03-30T13:56:21Z</time></trkpt><trkpt lat="41.92005617452326" lon="0.12985135824488797"><ele>284.5</ele><time>2026-03-30T13:56:22Z</time></trkpt><trkpt lat="41.92023484144736" lon="0.12958666437540414"><ele>282.0</ele><time>2026-03-30T13:56:23Z</time></trkpt><trkpt lat="41.920414022864186" lon="0.12931367476450945"><ele>282.5</ele><time>2026-03-30T13:56:24Z</time></trkpt><trkpt lat="41.920591173951046" lon="0.12905026221620355"><ele>283.0</ele><time>2026-03-30T13:56:25Z</time></trkpt><trkpt lat="41.92077087826532" lon="0.1287744034927601"><ele>282.0</ele><time>2026-03-30T13:56:26Z</time></trkpt><trkpt lat="41.92095019968004" lon="0.12850959474280568"><ele>281.0</ele><time>2026-03-30T13:56:27Z</time></trkpt><trkpt lat="41.92113084500429" lon="0.12823687308460868"><ele>280.5</ele><time>2026-03-30T13:56:28Z</time></trkpt><trkpt lat="41.92131009201688" lon="0.1279596540242804"><ele>280.0</ele><time>2026-03-30T13:56:29Z</time></trkpt><trkpt lat="41.92148997595267" lon="0.12768839863197254"><ele>280.0</ele><time>2026-03-30T13:56:30Z</time></trkpt><trkpt lat="41.92166454675062" lon="0.12742638287890212"><ele>280.0</ele><time>2026-03-30T13:56:31Z</time></trkpt><trkpt lat="41.921840955108465" lon="0.1271561117788524"><ele>279.5</ele><time>2026-03-30T13:56:32Z</time></trkpt><trkpt lat="41.922020609636355" lon="0.12688837967387656"><ele>279.0</ele><time>2026-03-30T13:56:33Z</time></trkpt><trkpt lat="41.92219052115983" lon="0.12663567431789347"><ele>278.0</ele><time>2026-03-30T13:56:34Z</time></trkpt><trkpt lat="41.92236288454955" lon="0.1263856955667227"><ele>277.0</ele><time>2026-03-30T13:56:35Z</time></trkpt><trkpt lat="41.922530064843656" lon="0.12613761585716235"><ele>277.5</ele><time>2026-03-30T13:56:36Z</time></trkpt><trkpt lat="41.92269412246051" lon="0.12588131867903687"><ele>278.0</ele><time>2026-03-30T13:56:37Z</time></trkpt><trkpt lat="41.9228540462001" lon="0.1256306467379601"><ele>278.0</ele><time>2026-03-30T13:56:38Z</time></trkpt><trkpt lat="41.92301874226906" lon="0.1253842368399462"><ele>278.0</ele><time>2026-03-30T13:56:39Z</time></trkpt><trkpt lat="41.92318620072583" lon="0.1251335171527689"><ele>277.5</ele><time>2026-03-30T13:56:40Z</time></trkpt><trkpt lat="41.923356011571826" lon="0.12487967322078004"><ele>277.0</ele><time>2026-03-30T13:56:41Z</time></trkpt><trkpt lat="41.923527257910976" lon="0.12461818295949707"><ele>278.0</ele><time>2026-03-30T13:56:42Z</time></trkpt><trkpt lat="41.92369844763036" lon="0.12435571467782669"><ele>279.0</ele><time>2026-03-30T13:56:43Z</time></trkpt><trkpt lat="41.92387372030112" lon="0.12409329339324147"><ele>278.5</ele><time>2026-03-30T13:56:44Z</time></trkpt><trkpt lat="41.924045279409874" lon="0.12382719221535758"><ele>278.0</ele><time>2026-03-30T13:56:45Z</time></trkpt><trkpt lat="41.924226247460105" lon="0.1235574100723012"><ele>278.5</ele><time>2026-03-30T13:56:46Z</time></trkpt><trkpt lat="41.924406485325974" lon="0.12329236795223011"><ele>279.0</ele><time>2026-03-30T13:56:47Z</time></trkpt><trkpt lat="41.92458954023408" lon="0.12301949295889515"><ele>278.0</ele><time>2026-03-30T13:56:48Z</time></trkpt><trkpt lat="41.92476623235253" lon="0.12275574500971558"><ele>277.0</ele><time>2026-03-30T13:56:49Z</time></trkpt><trkpt lat="41.92494887587534" lon="0.12248407810150837"><ele>278.0</ele><time>2026-03-30T13:56:50Z</time></trkpt><trkpt lat="41.92512687885155" lon="0.12221190194625081"><ele>279.0</ele><time>2026-03-30T13:56:51Z</time></trkpt><trkpt lat="41.92529790753395" lon="0.1219481285188286"><ele>279.0</ele><time>2026-03-30T13:56:52Z</time></trkpt><trkpt lat="41.92547215411282" lon="0.12168164321072042"><ele>279.0</ele><time>2026-03-30T13:56:53Z</time></trkpt><trkpt lat="41.92564684224936" lon="0.12141264250894697"><ele>279.0</ele><time>2026-03-30T13:56:54Z</time></trkpt><trkpt lat="41.92582646143395" lon="0.12114238067401822"><ele>279.0</ele><time>2026-03-30T13:56:55Z</time></trkpt><trkpt lat="41.92599891735395" lon="0.12088525820247574"><ele>279.5</ele><time>2026-03-30T13:56:56Z</time></trkpt><trkpt lat="41.92617506794134" lon="0.12062278355863491"><ele>280.0</ele><time>2026-03-30T13:56:57Z</time></trkpt><trkpt lat="41.926345275765286" lon="0.1203609894850798"><ele>280.0</ele><time>2026-03-30T13:56:58Z</time></trkpt><trkpt lat="41.92651486230753" lon="0.12010359665630783"><ele>280.0</ele><time>2026-03-30T13:56:59Z</time></trkpt><trkpt lat="41.92668200559731" lon="0.11985120951553287"><ele>283.0</ele><time>2026-03-30T13:57:00Z</time></trkpt><trkpt lat="41.92685619955204" lon="0.11959952654408261"><ele>286.0</ele><time>2026-03-30T13:57:01Z</time></trkpt><trkpt lat="41.92702638897515" lon="0.11934787949439202"><ele>286.0</ele><time>2026-03-30T13:57:02Z</time></trkpt><trkpt lat="41.9271820786679" lon="0.11910200259612509"><ele>286.0</ele><time>2026-03-30T13:57:03Z</time></trkpt><trkpt lat="41.92733878411332" lon="0.1188598222380345"><ele>286.0</ele><time>2026-03-30T13:57:04Z</time></trkpt><trkpt lat="41.92749497508922" lon="0.11862434976227898"><ele>286.0</ele><time>2026-03-30T13:57:05Z</time></trkpt><trkpt lat="41.9276578253714" lon="0.11839204595031522"><ele>286.5</ele><time>2026-03-30T13:57:06Z</time></trkpt><trkpt lat="41.92781239084754" lon="0.1181564959285284"><ele>287.0</ele><time>2026-03-30T13:57:07Z</time></trkpt><trkpt lat="41.92796240898976" lon="0.11792159953445035"><ele>287.0</ele><time>2026-03-30T13:57:08Z</time></trkpt><trkpt lat="41.92812022561726" lon="0.117701191631699"><ele>287.0</ele><time>2026-03-30T13:57:09Z</time></trkpt><trkpt lat="41.92827225867733" lon="0.11747545754279969"><ele>287.33333333333337</ele><time>2026-03-30T13:57:10Z</time></trkpt><trkpt lat="41.928410891604564" lon="0.1172646952838938"><ele>287.6666666666667</ele><time>2026-03-30T13:57:11Z</time></trkpt><trkpt lat="41.92852374033024" lon="0.11709075614266296"><ele>288.0</ele><time>2026-03-30T13:57:12Z</time></trkpt><trkpt lat="41.92861228996348" lon="0.1169578940662768"><ele>288.0</ele><time>2026-03-30T13:57:13Z</time></trkpt><trkpt lat="41.9287064708324" lon="0.11680268226666453"><ele>288.0</ele><time>2026-03-30T13:57:14Z</time></trkpt><trkpt lat="41.92881587495708" lon="0.11662663562982091"><ele>288.0</ele><time>2026-03-30T13:57:15Z</time></trkpt><trkpt lat="41.928930232517175" lon="0.11644867041030195"><ele>287.3333333333333</ele><time>2026-03-30T13:57:16Z</time></trkpt><trkpt lat="41.929050760942005" lon="0.11627085279828604"><ele>286.66666666666663</ele><time>2026-03-30T13:57:17Z</time></trkpt><trkpt lat="41.92917232783385" lon="0.1160889792218379"><ele>286.0</ele><time>2026-03-30T13:57:18Z</time></trkpt><trkpt lat="41.92929893454143" lon="0.11589457269794301"><ele>285.66666666666663</ele><time>2026-03-30T13:57:19Z</time></trkpt><trkpt lat="41.92942948689457" lon="0.11569453009090136"><ele>285.3333333333333</ele><time>2026-03-30T13:57:20Z</time></trkpt><trkpt lat="41.929569682359265" lon="0.11548548930800888"><ele>285.0</ele><time>2026-03-30T13:57:21Z</time></trkpt><trkpt lat="41.92972455812255" lon="0.11525817997587919"><ele>285.0</ele><time>2026-03-30T13:57:22Z</time></trkpt><trkpt lat="41.92988014251669" lon="0.11502828390383688"><ele>285.0</ele><time>2026-03-30T13:57:23Z</time></trkpt><trkpt lat="41.93003056094479" lon="0.11480347069603695"><ele>286.0</ele><time>2026-03-30T13:57:24Z</time></trkpt><trkpt lat="41.930183892632826" lon="0.11457920422234491"><ele>287.0</ele><time>2026-03-30T13:57:25Z</time></trkpt><trkpt lat="41.93033829337005" lon="0.114348402530925"><ele>287.0</ele><time>2026-03-30T13:57:26Z</time></trkpt><trkpt lat="41.930493803662124" lon="0.1141062250387992"><ele>287.0</ele><time>2026-03-30T13:57:27Z</time></trkpt><trkpt lat="41.93065215557008" lon="0.11386011232292942"><ele>287.0</ele><time>2026-03-30T13:57:28Z</time></trkpt><trkpt lat="41.930810097703215" lon="0.11361716811074164"><ele>287.0</ele><time>2026-03-30T13:57:29Z</time></trkpt><trkpt lat="41.930974115514566" lon="0.11336829232416183"><ele>286.0</ele><time>2026-03-30T13:57:30Z</time></trkpt><trkpt lat="41.931132770557" lon="0.11312435814570676"><ele>285.0</ele><time>2026-03-30T13:57:31Z</time></trkpt><trkpt lat="41.93129287931349" lon="0.11288356370954193"><ele>285.0</ele><time>2026-03-30T13:57:32Z</time></trkpt><trkpt lat="41.9314531469259" lon="0.11264344159468186"><ele>285.0</ele><time>2026-03-30T13:57:33Z</time></trkpt><trkpt lat="41.93161454384839" lon="0.11240309195245889"><ele>286.0</ele><time>2026-03-30T13:57:34Z</time></trkpt><trkpt lat="41.93177027900846" lon="0.11216628003640866"><ele>287.0</ele><time>2026-03-30T13:57:35Z</time></trkpt><trkpt lat="41.931928748410044" lon="0.11192578463916111"><ele>287.0</ele><time>2026-03-30T13:57:36Z</time></trkpt><trkpt lat="41.93208644599969" lon="0.11169372490393324"><ele>287.0</ele><time>2026-03-30T13:57:37Z</time></trkpt><trkpt lat="41.93224281044436" lon="0.11146697221504372"><ele>285.5</ele><time>2026-03-30T13:57:38Z</time></trkpt><trkpt lat="41.93239809794422" lon="0.11124114057995177"><ele>284.0</ele><time>2026-03-30T13:57:39Z</time></trkpt><trkpt lat="41.93254945273063" lon="0.11101057774616704"><ele>284.0</ele><time>2026-03-30T13:57:40Z</time></trkpt><trkpt lat="41.93269729939333" lon="0.11078153936060013"><ele>284.0</ele><time>2026-03-30T13:57:41Z</time></trkpt><trkpt lat="41.93284718113877" lon="0.1105524942795948"><ele>284.0</ele><time>2026-03-30T13:57:42Z</time></trkpt><trkpt lat="41.93299626993618" lon="0.11032318869611364"><ele>284.0</ele><time>2026-03-30T13:57:43Z</time></trkpt><trkpt lat="41.933153501384986" lon="0.11008582517825008"><ele>283.5</ele><time>2026-03-30T13:57:44Z</time></trkpt><trkpt lat="41.93330779026563" lon="0.1098531577500194"><ele>283.0</ele><time>2026-03-30T13:57:45Z</time></trkpt><trkpt lat="41.93346664775497" lon="0.10962010834436307"><ele>282.5</ele><time>2026-03-30T13:57:46Z</time></trkpt><trkpt lat="41.933620605793564" lon="0.10938450444107997"><ele>282.0</ele><time>2026-03-30T13:57:47Z</time></trkpt><trkpt lat="41.93377530996403" lon="0.10914486763031979"><ele>280.5</ele><time>2026-03-30T13:57:48Z</time></trkpt><trkpt lat="41.933935113063434" lon="0.10890139286586004"><ele>279.0</ele><time>2026-03-30T13:57:49Z</time></trkpt><trkpt lat="41.9340955162876" lon="0.10866148815181022"><ele>278.5</ele><time>2026-03-30T13:57:50Z</time></trkpt><trkpt lat="41.93425116035375" lon="0.10842449053407525"><ele>278.0</ele><time>2026-03-30T13:57:51Z</time></trkpt><trkpt lat="41.93442115474744" lon="0.10817243186563388"><ele>278.0</ele><time>2026-03-30T13:57:52Z</time></trkpt><trkpt lat="41.93458784947573" lon="0.10792472850623379"><ele>278.0</ele><time>2026-03-30T13:57:53Z</time></trkpt><trkpt lat="41.934762698575206" lon="0.10767119709920962"><ele>277.5</ele><time>2026-03-30T13:57:54Z</time></trkpt><trkpt lat="41.93494126952035" lon="0.10740989215576388"><ele>277.0</ele><time>2026-03-30T13:57:55Z</time></trkpt><trkpt lat="41.935107509131846" lon="0.10715560923745032"><ele>277.0</ele><time>2026-03-30T13:57:56Z</time></trkpt><trkpt lat="41.93527968293125" lon="0.1068935796065572"><ele>277.0</ele><time>2026-03-30T13:57:57Z</time></trkpt><trkpt lat="41.93545446162082" lon="0.10662744454178177"><ele>277.0</ele><time>2026-03-30T13:57:58Z</time></trkpt><trkpt lat="41.9356207732767" lon="0.10637419765329942"><ele>277.0</ele><time>2026-03-30T13:57:59Z</time></trkpt><trkpt lat="41.93579383397967" lon="0.10610934544766203"><ele>277.0</ele><time>2026-03-30T13:58:00Z</time></trkpt><trkpt lat="41.93597946110987" lon="0.10584057665037455"><ele>277.0</ele><time>2026-03-30T13:58:01Z</time></trkpt><trkpt lat="41.936164261800094" lon="0.10554968525551826"><ele>277.0</ele><time>2026-03-30T13:58:02Z</time></trkpt><trkpt lat="41.936356664368844" lon="0.10525220482921711"><ele>277.0</ele><time>2026-03-30T13:58:03Z</time></trkpt><trkpt lat="41.93654281111159" lon="0.10495705317584483"><ele>277.5</ele><time>2026-03-30T13:58:04Z</time></trkpt><trkpt lat="41.9367141449857" lon="0.10465767865477914"><ele>278.0</ele><time>2026-03-30T13:58:05Z</time></trkpt><trkpt lat="41.936877243537175" lon="0.10435603141225022"><ele>278.0</ele><time>2026-03-30T13:58:06Z</time></trkpt><trkpt lat="41.9370351848898" lon="0.10405470830522288"><ele>278.0</ele><time>2026-03-30T13:58:07Z</time></trkpt><trkpt lat="41.93718883608986" lon="0.10376267450628483"><ele>278.0</ele><time>2026-03-30T13:58:08Z</time></trkpt><trkpt lat="41.93733943428861" lon="0.10345879249595143"><ele>278.0</ele><time>2026-03-30T13:58:09Z</time></trkpt><trkpt lat="41.937489633124414" lon="0.10316064731106174"><ele>278.0</ele><time>2026-03-30T13:58:10Z</time></trkpt><trkpt lat="41.937642708389525" lon="0.10286325400266011"><ele>278.0</ele><time>2026-03-30T13:58:11Z</time></trkpt><trkpt lat="41.93779586738698" lon="0.10258169187237752"><ele>279.0</ele><time>2026-03-30T13:58:12Z</time></trkpt><trkpt lat="41.93794767724707" lon="0.10229207318570736"><ele>280.0</ele><time>2026-03-30T13:58:13Z</time></trkpt><trkpt lat="41.93809584298317" lon="0.10199885090262589"><ele>280.0</ele><time>2026-03-30T13:58:14Z</time></trkpt><trkpt lat="41.93824359647545" lon="0.1017099363987603"><ele>280.0</ele><time>2026-03-30T13:58:15Z</time></trkpt><trkpt lat="41.93839164266118" lon="0.10141894783987723"><ele>280.0</ele><time>2026-03-30T13:58:16Z</time></trkpt><trkpt lat="41.93854550620862" lon="0.10112570846799747"><ele>280.0</ele><time>2026-03-30T13:58:17Z</time></trkpt><trkpt lat="41.93870201437113" lon="0.10083141622607149"><ele>280.5</ele><time>2026-03-30T13:58:18Z</time></trkpt><trkpt lat="41.93885610834571" lon="0.10054286533560625"><ele>281.0</ele><time>2026-03-30T13:58:19Z</time></trkpt><trkpt lat="41.9390091425644" lon="0.10024516796443489"><ele>281.0</ele><time>2026-03-30T13:58:20Z</time></trkpt><trkpt lat="41.939163393970446" lon="0.09994685566733102"><ele>281.0</ele><time>2026-03-30T13:58:21Z</time></trkpt><trkpt lat="41.93931731517932" lon="0.09965199963527631"><ele>280.5</ele><time>2026-03-30T13:58:22Z</time></trkpt><trkpt lat="41.93947097916794" lon="0.09935104601727092"><ele>280.0</ele><time>2026-03-30T13:58:23Z</time></trkpt><trkpt lat="41.93962530010349" lon="0.0990486290942892"><ele>280.0</ele><time>2026-03-30T13:58:24Z</time></trkpt><trkpt lat="41.93978263675494" lon="0.09874118829357216"><ele>280.0</ele><time>2026-03-30T13:58:25Z</time></trkpt><trkpt lat="41.939942378497044" lon="0.09844031630818369"><ele>280.0</ele><time>2026-03-30T13:58:26Z</time></trkpt><trkpt lat="41.94010494091082" lon="0.0981344007041084"><ele>280.0</ele><time>2026-03-30T13:58:27Z</time></trkpt><trkpt lat="41.940264581628085" lon="0.09783033524986022"><ele>280.0</ele><time>2026-03-30T13:58:28Z</time></trkpt><trkpt lat="41.94042404025957" lon="0.09752840229806904"><ele>280.0</ele><time>2026-03-30T13:58:29Z</time></trkpt><trkpt lat="41.94058267730556" lon="0.09722753784453021"><ele>280.0</ele><time>2026-03-30T13:58:30Z</time></trkpt><trkpt lat="41.94074044081952" lon="0.09691788419149926"><ele>280.0</ele><time>2026-03-30T13:58:31Z</time></trkpt><trkpt lat="41.940887771169805" lon="0.09662448803203866"><ele>280.5</ele><time>2026-03-30T13:58:32Z</time></trkpt><trkpt lat="41.94104869415594" lon="0.09631362177656315"><ele>281.0</ele><time>2026-03-30T13:58:33Z</time></trkpt><trkpt lat="41.941203071382716" lon="0.0960159904485706"><ele>281.0</ele><time>2026-03-30T13:58:34Z</time></trkpt><trkpt lat="41.94136009213859" lon="0.09571817890983365"><ele>281.0</ele><time>2026-03-30T13:58:35Z</time></trkpt><trkpt lat="41.941514013113164" lon="0.09542718839860587"><ele>281.0</ele><time>2026-03-30T13:58:36Z</time></trkpt><trkpt lat="41.941658867056574" lon="0.095146218978753"><ele>281.0</ele><time>2026-03-30T13:58:37Z</time></trkpt><trkpt lat="41.9418083502916" lon="0.09485460179954347"><ele>281.0</ele><time>2026-03-30T13:58:38Z</time></trkpt><trkpt lat="41.941956691157706" lon="0.09457057624283619"><ele>281.0</ele><time>2026-03-30T13:58:39Z</time></trkpt><trkpt lat="41.94210526738906" lon="0.09428559958178491"><ele>281.0</ele><time>2026-03-30T13:58:40Z</time></trkpt><trkpt lat="41.94225421855744" lon="0.09399518752572614"><ele>281.0</ele><time>2026-03-30T13:58:41Z</time></trkpt><trkpt lat="41.94240445374826" lon="0.093700657697361"><ele>281.0</ele><time>2026-03-30T13:58:42Z</time></trkpt><trkpt lat="41.94255944643844" lon="0.0934034607114044"><ele>281.0</ele><time>2026-03-30T13:58:43Z</time></trkpt><trkpt lat="41.942712367266445" lon="0.0931114946404351"><ele>282.0</ele><time>2026-03-30T13:58:44Z</time></trkpt><trkpt lat="41.942869116635194" lon="0.0928126629443294"><ele>283.0</ele><time>2026-03-30T13:58:45Z</time></trkpt><trkpt lat="41.94301374475997" lon="0.09252431231314796"><ele>283.5</ele><time>2026-03-30T13:58:46Z</time></trkpt><trkpt lat="41.943173371286925" lon="0.09221565008654833"><ele>284.0</ele><time>2026-03-30T13:58:47Z</time></trkpt><trkpt lat="41.943323960511876" lon="0.0919208346919088"><ele>284.0</ele><time>2026-03-30T13:58:48Z</time></trkpt><trkpt lat="41.94347514997459" lon="0.09163044459241554"><ele>284.0</ele><time>2026-03-30T13:58:49Z</time></trkpt><trkpt lat="41.943628391588426" lon="0.09133979452909743"><ele>284.0</ele><time>2026-03-30T13:58:50Z</time></trkpt><trkpt lat="41.94377996766173" lon="0.09104969390745013"><ele>284.0</ele><time>2026-03-30T13:58:51Z</time></trkpt><trkpt lat="41.94392733429448" lon="0.09076019808532945"><ele>284.0</ele><time>2026-03-30T13:58:52Z</time></trkpt><trkpt lat="41.944075528616025" lon="0.09047152008867071"><ele>284.0</ele><time>2026-03-30T13:58:53Z</time></trkpt><trkpt lat="41.944224319704034" lon="0.09018411600550885"><ele>285.0</ele><time>2026-03-30T13:58:54Z</time></trkpt><trkpt lat="41.94437167268664" lon="0.0898961764416268"><ele>286.0</ele><time>2026-03-30T13:58:55Z</time></trkpt><trkpt lat="41.94451734824543" lon="0.0896127147693064"><ele>286.0</ele><time>2026-03-30T13:58:56Z</time></trkpt><trkpt lat="41.94466694026498" lon="0.08932372417583448"><ele>286.0</ele><time>2026-03-30T13:58:57Z</time></trkpt><trkpt lat="41.94481726738499" lon="0.08903593332193319"><ele>285.5</ele><time>2026-03-30T13:58:58Z</time></trkpt><trkpt lat="41.94497107787138" lon="0.08874664895441266"><ele>285.0</ele><time>2026-03-30T13:58:59Z</time></trkpt><trkpt lat="41.945124228323365" lon="0.088452865742401"><ele>286.0</ele><time>2026-03-30T13:59:00Z</time></trkpt><trkpt lat="41.945273647262674" lon="0.08816060467536735"><ele>287.0</ele><time>2026-03-30T13:59:01Z</time></trkpt><trkpt lat="41.94542373172076" lon="0.08787334466074173"><ele>287.0</ele><time>2026-03-30T13:59:02Z</time></trkpt><trkpt lat="41.94557496871799" lon="0.08758853893677529"><ele>287.0</ele><time>2026-03-30T13:59:03Z</time></trkpt><trkpt lat="41.945725552006316" lon="0.08729862087351103"><ele>287.0</ele><time>2026-03-30T13:59:04Z</time></trkpt><trkpt lat="41.945871681016136" lon="0.08701912605838043"><ele>287.0</ele><time>2026-03-30T13:59:05Z</time></trkpt><trkpt lat="41.94601746055237" lon="0.08674057982456118"><ele>288.0</ele><time>2026-03-30T13:59:06Z</time></trkpt><trkpt lat="41.946164798831326" lon="0.08645535137692958"><ele>289.0</ele><time>2026-03-30T13:59:07Z</time></trkpt><trkpt lat="41.946300097446624" lon="0.08617987214567543"><ele>289.0</ele><time>2026-03-30T13:59:08Z</time></trkpt><trkpt lat="41.94644411605536" lon="0.08590416964440559"><ele>289.0</ele><time>2026-03-30T13:59:09Z</time></trkpt><trkpt lat="41.946581777297204" lon="0.08563969229582706"><ele>291.5</ele><time>2026-03-30T13:59:10Z</time></trkpt><trkpt lat="41.94672988701768" lon="0.08536894202505704"><ele>294.0</ele><time>2026-03-30T13:59:11Z</time></trkpt><trkpt lat="41.94687096449497" lon="0.08509488104787417"><ele>293.5</ele><time>2026-03-30T13:59:12Z</time></trkpt><trkpt lat="41.947017709037446" lon="0.08481286366908025"><ele>293.0</ele><time>2026-03-30T13:59:13Z</time></trkpt><trkpt lat="41.94715681288378" lon="0.08453866740910057"><ele>293.0</ele><time>2026-03-30T13:59:14Z</time></trkpt><trkpt lat="41.947297629106345" lon="0.08426700875583373"><ele>293.0</ele><time>2026-03-30T13:59:15Z</time></trkpt><trkpt lat="41.94743961957497" lon="0.0839884437159092"><ele>295.5</ele><time>2026-03-30T13:59:16Z</time></trkpt><trkpt lat="41.9475826658998" lon="0.0836985561815827"><ele>298.0</ele><time>2026-03-30T13:59:17Z</time></trkpt><trkpt lat="41.947726752897" lon="0.0834283129076084"><ele>297.5</ele><time>2026-03-30T13:59:18Z</time></trkpt><trkpt lat="41.94786931636499" lon="0.08315853818779882"><ele>297.0</ele><time>2026-03-30T13:59:19Z</time></trkpt><trkpt lat="41.94799306124837" lon="0.08287844929936805"><ele>297.0</ele><time>2026-03-30T13:59:20Z</time></trkpt><trkpt lat="41.94809217970528" lon="0.08257275329562146"><ele>297.0</ele><time>2026-03-30T13:59:21Z</time></trkpt><trkpt lat="41.94817671523346" lon="0.08226372600228109"><ele>296.0</ele><time>2026-03-30T13:59:22Z</time></trkpt><trkpt lat="41.94825971551428" lon="0.08194084039133938"><ele>295.0</ele><time>2026-03-30T13:59:23Z</time></trkpt><trkpt lat="41.94834692777657" lon="0.08163161969442885"><ele>297.0</ele><time>2026-03-30T13:59:24Z</time></trkpt><trkpt lat="41.94843781059923" lon="0.08132085143861338"><ele>299.0</ele><time>2026-03-30T13:59:25Z</time></trkpt><trkpt lat="41.94853074931796" lon="0.08101070625604712"><ele>298.0</ele><time>2026-03-30T13:59:26Z</time></trkpt><trkpt lat="41.94862446145696" lon="0.08070106368348103"><ele>297.0</ele><time>2026-03-30T13:59:27Z</time></trkpt><trkpt lat="41.94871423188747" lon="0.08038444193265841"><ele>297.0</ele><time>2026-03-30T13:59:28Z</time></trkpt><trkpt lat="41.94880267905208" lon="0.08007462304704284"><ele>297.0</ele><time>2026-03-30T13:59:29Z</time></trkpt><trkpt lat="41.948895772736016" lon="0.07976275476705375"><ele>297.0</ele><time>2026-03-30T13:59:30Z</time></trkpt><trkpt lat="41.94899092012171" lon="0.07944900724585195"><ele>297.0</ele><time>2026-03-30T13:59:31Z</time></trkpt><trkpt lat="41.94908400006865" lon="0.07912901670306724"><ele>296.0</ele><time>2026-03-30T13:59:32Z</time></trkpt><trkpt lat="41.949174557397555" lon="0.07881218319069175"><ele>295.0</ele><time>2026-03-30T13:59:33Z</time></trkpt><trkpt lat="41.949264964525575" lon="0.07849772274510804"><ele>297.0</ele><time>2026-03-30T13:59:34Z</time></trkpt><trkpt lat="41.94935585720519" lon="0.07819597719169745"><ele>299.0</ele><time>2026-03-30T13:59:35Z</time></trkpt><trkpt lat="41.94944626179741" lon="0.07789145946774834"><ele>299.0</ele><time>2026-03-30T13:59:36Z</time></trkpt><trkpt lat="41.94953198083556" lon="0.07759762512256892"><ele>299.0</ele><time>2026-03-30T13:59:37Z</time></trkpt><trkpt lat="41.94961780377943" lon="0.07730748678752093"><ele>298.5</ele><time>2026-03-30T13:59:38Z</time></trkpt><trkpt lat="41.94970394585882" lon="0.07701746020646527"><ele>298.0</ele><time>2026-03-30T13:59:39Z</time></trkpt><trkpt lat="41.94978597094686" lon="0.07672947932443933"><ele>298.0</ele><time>2026-03-30T13:59:40Z</time></trkpt><trkpt lat="41.94986741137176" lon="0.07645221825144324"><ele>298.0</ele><time>2026-03-30T13:59:41Z</time></trkpt><trkpt lat="41.94995250677922" lon="0.07615998385676963"><ele>298.0</ele><time>2026-03-30T13:59:42Z</time></trkpt><trkpt lat="41.950034050963225" lon="0.07588831848519391"><ele>298.0</ele><time>2026-03-30T13:59:43Z</time></trkpt><trkpt lat="41.9501133674404" lon="0.07561994367345207"><ele>298.0</ele><time>2026-03-30T13:59:44Z</time></trkpt><trkpt lat="41.950191117132825" lon="0.07535074801116311"><ele>298.66666666666663</ele><time>2026-03-30T13:59:45Z</time></trkpt><trkpt lat="41.95026879086028" lon="0.07508220510756441"><ele>299.3333333333333</ele><time>2026-03-30T13:59:46Z</time></trkpt><trkpt lat="41.950347307040026" lon="0.07482456328752418"><ele>300.0</ele><time>2026-03-30T13:59:47Z</time></trkpt><trkpt lat="41.95042390237563" lon="0.0745566036866419"><ele>300.0</ele><time>2026-03-30T13:59:48Z</time></trkpt><trkpt lat="41.95049693893735" lon="0.07430576451525608"><ele>300.0</ele><time>2026-03-30T13:59:49Z</time></trkpt><trkpt lat="41.95057356579502" lon="0.07404777580418756"><ele>300.0</ele><time>2026-03-30T13:59:50Z</time></trkpt><trkpt lat="41.95065057125358" lon="0.07378463774074313"><ele>299.3333333333333</ele><time>2026-03-30T13:59:51Z</time></trkpt><trkpt lat="41.95072648380265" lon="0.07352357649826545"><ele>298.66666666666663</ele><time>2026-03-30T13:59:52Z</time></trkpt><trkpt lat="41.95080207029726" lon="0.07325477987293787"><ele>298.0</ele><time>2026-03-30T13:59:53Z</time></trkpt><trkpt lat="41.9508804649397" lon="0.07298586868673133"><ele>299.0</ele><time>2026-03-30T13:59:54Z</time></trkpt><trkpt lat="41.950966612611566" lon="0.07271849888302859"><ele>300.0</ele><time>2026-03-30T13:59:55Z</time></trkpt><trkpt lat="41.95104448298894" lon="0.07243893272218083"><ele>301.0</ele><time>2026-03-30T13:59:56Z</time></trkpt><trkpt lat="41.95113092827585" lon="0.07214473021082855"><ele>301.0</ele><time>2026-03-30T13:59:57Z</time></trkpt><trkpt lat="41.95122267725781" lon="0.07184228846164087"><ele>301.0</ele><time>2026-03-30T13:59:58Z</time></trkpt><trkpt lat="41.95131343889685" lon="0.07153945038837561"><ele>300.5</ele><time>2026-03-30T13:59:59Z</time></trkpt><trkpt lat="41.95141094696827" lon="0.07123683679239252"><ele>300.0</ele><time>2026-03-30T14:00:00Z</time></trkpt><trkpt lat="41.95149827373648" lon="0.07091799728109109"><ele>301.0</ele><time>2026-03-30T14:00:01Z</time></trkpt><trkpt lat="41.95158896535277" lon="0.07060380871483828"><ele>302.0</ele><time>2026-03-30T14:00:02Z</time></trkpt><trkpt lat="41.951681708852334" lon="0.07029483246993422"><ele>302.5</ele><time>2026-03-30T14:00:03Z</time></trkpt><trkpt lat="41.95177354748081" lon="0.06999218606171355"><ele>303.0</ele><time>2026-03-30T14:00:04Z</time></trkpt><trkpt lat="41.9518629272426" lon="0.06968319443130114"><ele>303.0</ele><time>2026-03-30T14:00:05Z</time></trkpt><trkpt lat="41.951956538355965" lon="0.06935491555891721"><ele>303.0</ele><time>2026-03-30T14:00:06Z</time></trkpt><trkpt lat="41.95205075094813" lon="0.06903116174988483"><ele>303.5</ele><time>2026-03-30T14:00:07Z</time></trkpt><trkpt lat="41.952145566191426" lon="0.06870806418061187"><ele>304.0</ele><time>2026-03-30T14:00:08Z</time></trkpt><trkpt lat="41.952239042819215" lon="0.06838744510236391"><ele>304.0</ele><time>2026-03-30T14:00:09Z</time></trkpt><trkpt lat="41.952332294043565" lon="0.0680652715054772"><ele>304.0</ele><time>2026-03-30T14:00:10Z</time></trkpt><trkpt lat="41.952423295934736" lon="0.06773870021070134"><ele>303.5</ele><time>2026-03-30T14:00:11Z</time></trkpt><trkpt lat="41.9525164356392" lon="0.06742694247898672"><ele>303.0</ele><time>2026-03-30T14:00:12Z</time></trkpt><trkpt lat="41.95261126317453" lon="0.06710232421069143"><ele>304.5</ele><time>2026-03-30T14:00:13Z</time></trkpt><trkpt lat="41.95271325773392" lon="0.06676346664529272"><ele>306.0</ele><time>2026-03-30T14:00:14Z</time></trkpt><trkpt lat="41.95281395486111" lon="0.0664132749073757"><ele>306.0</ele><time>2026-03-30T14:00:15Z</time></trkpt><trkpt lat="41.95292353082122" lon="0.06605884354260137"><ele>306.0</ele><time>2026-03-30T14:00:16Z</time></trkpt><trkpt lat="41.953037183119704" lon="0.06567329580691861"><ele>305.5</ele><time>2026-03-30T14:00:17Z</time></trkpt><trkpt lat="41.953155109660976" lon="0.06527932903469717"><ele>305.0</ele><time>2026-03-30T14:00:18Z</time></trkpt><trkpt lat="41.953275351751095" lon="0.0648736231544241"><ele>307.5</ele><time>2026-03-30T14:00:19Z</time></trkpt><trkpt lat="41.953382326445585" lon="0.06449500368526458"><ele>310.0</ele><time>2026-03-30T14:00:20Z</time></trkpt><trkpt lat="41.95348606765234" lon="0.06412655314056531"><ele>308.5</ele><time>2026-03-30T14:00:21Z</time></trkpt><trkpt lat="41.9535884916198" lon="0.06377185665634483"><ele>307.0</ele><time>2026-03-30T14:00:22Z</time></trkpt><trkpt lat="41.95368921656295" lon="0.0634370354322863"><ele>307.0</ele><time>2026-03-30T14:00:23Z</time></trkpt><trkpt lat="41.9537961028943" lon="0.06308944159793461"><ele>307.0</ele><time>2026-03-30T14:00:24Z</time></trkpt><trkpt lat="41.953896385417885" lon="0.06275391174191682"><ele>307.5</ele><time>2026-03-30T14:00:25Z</time></trkpt><trkpt lat="41.95399642387535" lon="0.06241164169825604"><ele>308.0</ele><time>2026-03-30T14:00:26Z</time></trkpt><trkpt lat="41.954092406212524" lon="0.06207538063439126"><ele>308.0</ele><time>2026-03-30T14:00:27Z</time></trkpt><trkpt lat="41.95418807149873" lon="0.061738905303730426"><ele>308.0</ele><time>2026-03-30T14:00:28Z</time></trkpt><trkpt lat="41.954287952461215" lon="0.06139340473838836"><ele>310.0</ele><time>2026-03-30T14:00:29Z</time></trkpt><trkpt lat="41.95438992931684" lon="0.06104926886342639"><ele>312.0</ele><time>2026-03-30T14:00:30Z</time></trkpt><trkpt lat="41.95449109439616" lon="0.060709874208739224"><ele>312.0</ele><time>2026-03-30T14:00:31Z</time></trkpt><trkpt lat="41.95458959584032" lon="0.0603756398789754"><ele>312.0</ele><time>2026-03-30T14:00:32Z</time></trkpt><trkpt lat="41.95468743711752" lon="0.06005020391252731"><ele>311.5</ele><time>2026-03-30T14:00:33Z</time></trkpt><trkpt lat="41.95478254777539" lon="0.059729882169890954"><ele>311.0</ele><time>2026-03-30T14:00:34Z</time></trkpt><trkpt lat="41.954880803319476" lon="0.059404671868357496"><ele>311.5</ele><time>2026-03-30T14:00:35Z</time></trkpt><trkpt lat="41.95496307896179" lon="0.05910069916334062"><ele>312.0</ele><time>2026-03-30T14:00:36Z</time></trkpt><trkpt lat="41.955057290436415" lon="0.05878228118238968"><ele>313.5</ele><time>2026-03-30T14:00:37Z</time></trkpt><trkpt lat="41.95514555287244" lon="0.05847291850806005"><ele>315.0</ele><time>2026-03-30T14:00:38Z</time></trkpt><trkpt lat="41.955240663097506" lon="0.05815783000536947"><ele>315.0</ele><time>2026-03-30T14:00:39Z</time></trkpt><trkpt lat="41.95533422373027" lon="0.057846981571133334"><ele>315.0</ele><time>2026-03-30T14:00:40Z</time></trkpt><trkpt lat="41.95542973550154" lon="0.057526752322545956"><ele>315.0</ele><time>2026-03-30T14:00:41Z</time></trkpt><trkpt lat="41.955523578248766" lon="0.057201421065594935"><ele>315.0</ele><time>2026-03-30T14:00:42Z</time></trkpt><trkpt lat="41.95560868438214" lon="0.056891872976519875"><ele>315.0</ele><time>2026-03-30T14:00:43Z</time></trkpt><trkpt lat="41.95570126814223" lon="0.056576651507904724"><ele>315.0</ele><time>2026-03-30T14:00:44Z</time></trkpt><trkpt lat="41.95579227990983" lon="0.05626154483796175"><ele>316.5</ele><time>2026-03-30T14:00:45Z</time></trkpt><trkpt lat="41.95588253761587" lon="0.05594527752466916"><ele>318.0</ele><time>2026-03-30T14:00:46Z</time></trkpt><trkpt lat="41.95597525165746" lon="0.05562915241479884"><ele>318.0</ele><time>2026-03-30T14:00:47Z</time></trkpt><trkpt lat="41.95607238159036" lon="0.05531471644388605"><ele>318.0</ele><time>2026-03-30T14:00:48Z</time></trkpt><trkpt lat="41.95616877222692" lon="0.05501154859116816"><ele>317.5</ele><time>2026-03-30T14:00:49Z</time></trkpt><trkpt lat="41.95626178314458" lon="0.05470879752072422"><ele>317.0</ele><time>2026-03-30T14:00:50Z</time></trkpt><trkpt lat="41.95634927788643" lon="0.054403991565202044"><ele>318.0</ele><time>2026-03-30T14:00:51Z</time></trkpt><trkpt lat="41.956430775313386" lon="0.05411257202045243"><ele>319.0</ele><time>2026-03-30T14:00:52Z</time></trkpt><trkpt lat="41.956520177169644" lon="0.05380896794433332"><ele>319.0</ele><time>2026-03-30T14:00:53Z</time></trkpt><trkpt lat="41.956609293357694" lon="0.05350113405294898"><ele>319.0</ele><time>2026-03-30T14:00:54Z</time></trkpt><trkpt lat="41.95669244615148" lon="0.05320577218331719"><ele>320.0</ele><time>2026-03-30T14:00:55Z</time></trkpt><trkpt lat="41.95677638007005" lon="0.05291806818732613"><ele>321.0</ele><time>2026-03-30T14:00:56Z</time></trkpt><trkpt lat="41.95686981095417" lon="0.05262003785569003"><ele>321.5</ele><time>2026-03-30T14:00:57Z</time></trkpt><trkpt lat="41.956950190695366" lon="0.052333510078177825"><ele>322.0</ele><time>2026-03-30T14:00:58Z</time></trkpt><trkpt lat="41.95703249125015" lon="0.05204264690948578"><ele>322.0</ele><time>2026-03-30T14:00:59Z</time></trkpt><trkpt lat="41.95712221772926" lon="0.05174344265442468"><ele>322.0</ele><time>2026-03-30T14:01:00Z</time></trkpt><trkpt lat="41.9572159814017" lon="0.051430072001667444"><ele>323.0</ele><time>2026-03-30T14:01:01Z</time></trkpt><trkpt lat="41.9573083303818" lon="0.05111130454033265"><ele>324.0</ele><time>2026-03-30T14:01:02Z</time></trkpt><trkpt lat="41.957400971771456" lon="0.050790842627441116"><ele>324.5</ele><time>2026-03-30T14:01:03Z</time></trkpt><trkpt lat="41.95749164752159" lon="0.050471520426019253"><ele>325.0</ele><time>2026-03-30T14:01:04Z</time></trkpt><trkpt lat="41.95758382959867" lon="0.05014542628553488"><ele>327.0</ele><time>2026-03-30T14:01:05Z</time></trkpt><trkpt lat="41.95768511892891" lon="0.04980516206654124"><ele>329.0</ele><time>2026-03-30T14:01:06Z</time></trkpt><trkpt lat="41.95778800981834" lon="0.049452812158303494"><ele>328.5</ele><time>2026-03-30T14:01:07Z</time></trkpt><trkpt lat="41.957891635464826" lon="0.04909848047854152"><ele>328.0</ele><time>2026-03-30T14:01:08Z</time></trkpt><trkpt lat="41.95799834666174" lon="0.04873853420076309"><ele>328.0</ele><time>2026-03-30T14:01:09Z</time></trkpt><trkpt lat="41.95809790958404" lon="0.048392820169301104"><ele>328.0</ele><time>2026-03-30T14:01:10Z</time></trkpt><trkpt lat="41.95820005935695" lon="0.04804115331359074"><ele>328.0</ele><time>2026-03-30T14:01:11Z</time></trkpt><trkpt lat="41.95830303653735" lon="0.047699290431875534"><ele>328.0</ele><time>2026-03-30T14:01:12Z</time></trkpt><trkpt lat="41.95840711972494" lon="0.04736335420297675"><ele>330.5</ele><time>2026-03-30T14:01:13Z</time></trkpt><trkpt lat="41.95851035343845" lon="0.04701934373586879"><ele>333.0</ele><time>2026-03-30T14:01:14Z</time></trkpt><trkpt lat="41.95860121951702" lon="0.04668705723481606"><ele>332.0</ele><time>2026-03-30T14:01:15Z</time></trkpt><trkpt lat="41.95868897742198" lon="0.046385694719278524"><ele>331.0</ele><time>2026-03-30T14:01:16Z</time></trkpt><trkpt lat="41.95877309461929" lon="0.04609553543533697"><ele>331.0</ele><time>2026-03-30T14:01:17Z</time></trkpt><trkpt lat="41.958856559675645" lon="0.04581190516620305"><ele>331.0</ele><time>2026-03-30T14:01:18Z</time></trkpt><trkpt lat="41.958950567418825" lon="0.04549156814804629"><ele>330.5</ele><time>2026-03-30T14:01:19Z</time></trkpt><trkpt lat="41.95904116332595" lon="0.04517733925178663"><ele>330.0</ele><time>2026-03-30T14:01:20Z</time></trkpt><trkpt lat="41.95913787003722" lon="0.0448474913946846"><ele>332.5</ele><time>2026-03-30T14:01:21Z</time></trkpt><trkpt lat="41.959238067401856" lon="0.044509244779106255"><ele>335.0</ele><time>2026-03-30T14:01:22Z</time></trkpt><trkpt lat="41.95933443147613" lon="0.04419186485713305"><ele>335.0</ele><time>2026-03-30T14:01:23Z</time></trkpt><trkpt lat="41.959429558340965" lon="0.04386984920886906"><ele>335.0</ele><time>2026-03-30T14:01:24Z</time></trkpt><trkpt lat="41.95952203355324" lon="0.04353313541070442"><ele>335.0</ele><time>2026-03-30T14:01:25Z</time></trkpt><trkpt lat="41.95961627375224" lon="0.043190890604824186"><ele>335.0</ele><time>2026-03-30T14:01:26Z</time></trkpt><trkpt lat="41.95971381050248" lon="0.042861370118177165"><ele>335.0</ele><time>2026-03-30T14:01:27Z</time></trkpt><trkpt lat="41.959818598168674" lon="0.042517442487735875"><ele>335.0</ele><time>2026-03-30T14:01:28Z</time></trkpt><trkpt lat="41.9599158522474" lon="0.04218558087573639"><ele>334.5</ele><time>2026-03-30T14:01:29Z</time></trkpt><trkpt lat="41.96001920482923" lon="0.04183943151215576"><ele>334.0</ele><time>2026-03-30T14:01:30Z</time></trkpt><trkpt lat="41.96012179774969" lon="0.04150364731322476"><ele>333.5</ele><time>2026-03-30T14:01:31Z</time></trkpt><trkpt lat="41.96022692518352" lon="0.04115982135780905"><ele>333.0</ele><time>2026-03-30T14:01:32Z</time></trkpt><trkpt lat="41.96032435186294" lon="0.04082177671698563"><ele>333.0</ele><time>2026-03-30T14:01:33Z</time></trkpt><trkpt lat="41.96041201621828" lon="0.0404918615731609"><ele>333.0</ele><time>2026-03-30T14:01:34Z</time></trkpt><trkpt lat="41.96050254006432" lon="0.0401648720848286"><ele>333.5</ele><time>2026-03-30T14:01:35Z</time></trkpt><trkpt lat="41.960599876818364" lon="0.03985004491338731"><ele>334.0</ele><time>2026-03-30T14:01:36Z</time></trkpt><trkpt lat="41.960694590796834" lon="0.03953636690102557"><ele>334.0</ele><time>2026-03-30T14:01:37Z</time></trkpt><trkpt lat="41.960788086200544" lon="0.039210253890868144"><ele>334.0</ele><time>2026-03-30T14:01:38Z</time></trkpt><trkpt lat="41.960872059243464" lon="0.038901686593252285"><ele>335.0</ele><time>2026-03-30T14:01:39Z</time></trkpt><trkpt lat="41.9609654912391" lon="0.03859414104394598"><ele>336.0</ele><time>2026-03-30T14:01:40Z</time></trkpt><trkpt lat="41.96105902371053" lon="0.038300155285080774"><ele>337.0</ele><time>2026-03-30T14:01:41Z</time></trkpt><trkpt lat="41.96114438992448" lon="0.03800804888245767"><ele>338.0</ele><time>2026-03-30T14:01:42Z</time></trkpt><trkpt lat="41.961228336439696" lon="0.03769925669868914"><ele>339.0</ele><time>2026-03-30T14:01:43Z</time></trkpt><trkpt lat="41.96131441041954" lon="0.037409394222223294"><ele>340.0</ele><time>2026-03-30T14:01:44Z</time></trkpt><trkpt lat="41.96140653485274" lon="0.03711151173468804"><ele>340.0</ele><time>2026-03-30T14:01:45Z</time></trkpt><trkpt lat="41.961491555294344" lon="0.03681925427778777"><ele>340.0</ele><time>2026-03-30T14:01:46Z</time></trkpt><trkpt lat="41.961572113316336" lon="0.03653329597259457"><ele>341.0</ele><time>2026-03-30T14:01:47Z</time></trkpt><trkpt lat="41.961651714281096" lon="0.036249346218711516"><ele>342.0</ele><time>2026-03-30T14:01:48Z</time></trkpt><trkpt lat="41.96173635293457" lon="0.03596189321206123"><ele>343.5</ele><time>2026-03-30T14:01:49Z</time></trkpt><trkpt lat="41.961824343801176" lon="0.03567359896745105"><ele>345.0</ele><time>2026-03-30T14:01:50Z</time></trkpt><trkpt lat="41.961910155792346" lon="0.0353905766506527"><ele>345.0</ele><time>2026-03-30T14:01:51Z</time></trkpt><trkpt lat="41.96199494806771" lon="0.0351015534707214"><ele>345.0</ele><time>2026-03-30T14:01:52Z</time></trkpt><trkpt lat="41.9620776103066" lon="0.03481834097925341"><ele>346.0</ele><time>2026-03-30T14:01:53Z</time></trkpt><trkpt lat="41.96216276418372" lon="0.03453194977082907"><ele>347.0</ele><time>2026-03-30T14:01:54Z</time></trkpt><trkpt lat="41.96224482217393" lon="0.034250440492160104"><ele>348.0</ele><time>2026-03-30T14:01:55Z</time></trkpt><trkpt lat="41.962330515603945" lon="0.0339548839896008"><ele>349.0</ele><time>2026-03-30T14:01:56Z</time></trkpt><trkpt lat="41.96241730117598" lon="0.03365661830568724"><ele>349.0</ele><time>2026-03-30T14:01:57Z</time></trkpt><trkpt lat="41.962500842879045" lon="0.03336238267717881"><ele>349.0</ele><time>2026-03-30T14:01:58Z</time></trkpt><trkpt lat="41.96258673520748" lon="0.03306605720857686"><ele>349.0</ele><time>2026-03-30T14:01:59Z</time></trkpt><trkpt lat="41.96267497878337" lon="0.03277666458564903"><ele>349.0</ele><time>2026-03-30T14:02:00Z</time></trkpt><trkpt lat="41.962760142288566" lon="0.032481033004695514"><ele>349.5</ele><time>2026-03-30T14:02:01Z</time></trkpt><trkpt lat="41.96284753903696" lon="0.032182346671119515"><ele>350.0</ele><time>2026-03-30T14:02:02Z</time></trkpt><trkpt lat="41.96293628477566" lon="0.03188647455600064"><ele>351.5</ele><time>2026-03-30T14:02:03Z</time></trkpt><trkpt lat="41.96302616480895" lon="0.031593177759102524"><ele>353.0</ele><time>2026-03-30T14:02:04Z</time></trkpt><trkpt lat="41.96310793561834" lon="0.031307238628118954"><ele>353.0</ele><time>2026-03-30T14:02:05Z</time></trkpt><trkpt lat="41.96319142321709" lon="0.031011402673360795"><ele>353.0</ele><time>2026-03-30T14:02:06Z</time></trkpt><trkpt lat="41.963276626479626" lon="0.03071754807515111"><ele>354.0</ele><time>2026-03-30T14:02:07Z</time></trkpt><trkpt lat="41.96335903933816" lon="0.03042302752008808"><ele>355.0</ele><time>2026-03-30T14:02:08Z</time></trkpt><trkpt lat="41.96344712141201" lon="0.030127705881120348"><ele>356.5</ele><time>2026-03-30T14:02:09Z</time></trkpt><trkpt lat="41.96353474711401" lon="0.029834383007751947"><ele>358.0</ele><time>2026-03-30T14:02:10Z</time></trkpt><trkpt lat="41.963621908831456" lon="0.02954384616032685"><ele>358.0</ele><time>2026-03-30T14:02:11Z</time></trkpt><trkpt lat="41.963707797875024" lon="0.029260924865207753"><ele>358.0</ele><time>2026-03-30T14:02:12Z</time></trkpt><trkpt lat="41.96378989210656" lon="0.028977147470970896"><ele>360.0</ele><time>2026-03-30T14:02:13Z</time></trkpt><trkpt lat="41.9638706807981" lon="0.02869317666223264"><ele>362.0</ele><time>2026-03-30T14:02:14Z</time></trkpt><trkpt lat="41.96396059340208" lon="0.028412384366541976"><ele>364.0</ele><time>2026-03-30T14:02:15Z</time></trkpt><trkpt lat="41.96406184320986" lon="0.028134644858768806"><ele>366.0</ele><time>2026-03-30T14:02:16Z</time></trkpt><trkpt lat="41.96417381522767" lon="0.027866666868630704"><ele>365.0</ele><time>2026-03-30T14:02:17Z</time></trkpt><trkpt lat="41.964291283017225" lon="0.027602923939640787"><ele>364.0</ele><time>2026-03-30T14:02:18Z</time></trkpt><trkpt lat="41.964414570421496" lon="0.02734769558349455"><ele>364.0</ele><time>2026-03-30T14:02:19Z</time></trkpt><trkpt lat="41.96454584396498" lon="0.027097148886426236"><ele>364.0</ele><time>2026-03-30T14:02:20Z</time></trkpt><trkpt lat="41.96469429149129" lon="0.02686124679796753"><ele>365.0</ele><time>2026-03-30T14:02:21Z</time></trkpt><trkpt lat="41.96485055231786" lon="0.026630505957880506"><ele>366.0</ele><time>2026-03-30T14:02:22Z</time></trkpt><trkpt lat="41.96501197338534" lon="0.026391027464053675"><ele>366.0</ele><time>2026-03-30T14:02:23Z</time></trkpt><trkpt lat="41.96516792414032" lon="0.026148610069720187"><ele>366.0</ele><time>2026-03-30T14:02:24Z</time></trkpt><trkpt lat="41.965313038363256" lon="0.025900978120843042"><ele>367.5</ele><time>2026-03-30T14:02:25Z</time></trkpt><trkpt lat="41.96544488380434" lon="0.025650503066967905"><ele>369.0</ele><time>2026-03-30T14:02:26Z</time></trkpt><trkpt lat="41.965562675822014" lon="0.025389641625098425"><ele>369.0</ele><time>2026-03-30T14:02:27Z</time></trkpt><trkpt lat="41.9656674770149" lon="0.025111811634544436"><ele>369.0</ele><time>2026-03-30T14:02:28Z</time></trkpt><trkpt lat="41.9657548471618" lon="0.02482301800183074"><ele>371.5</ele><time>2026-03-30T14:02:29Z</time></trkpt><trkpt lat="41.96581676664185" lon="0.024517070506283465"><ele>374.0</ele><time>2026-03-30T14:02:30Z</time></trkpt><trkpt lat="41.96585316828789" lon="0.024206381666285522"><ele>372.0</ele><time>2026-03-30T14:02:31Z</time></trkpt><trkpt lat="41.96587586436611" lon="0.02389515532960212"><ele>370.0</ele><time>2026-03-30T14:02:32Z</time></trkpt><trkpt lat="41.96589075695468" lon="0.023588129209112914"><ele>371.0</ele><time>2026-03-30T14:02:33Z</time></trkpt><trkpt lat="41.96588524177427" lon="0.023275890439303212"><ele>372.0</ele><time>2026-03-30T14:02:34Z</time></trkpt><trkpt lat="41.96584977857443" lon="0.022962126254211804"><ele>373.5</ele><time>2026-03-30T14:02:35Z</time></trkpt><trkpt lat="41.96581193371353" lon="0.02264652382152455"><ele>375.0</ele><time>2026-03-30T14:02:36Z</time></trkpt><trkpt lat="41.96576781213407" lon="0.022351103497166888"><ele>375.5</ele><time>2026-03-30T14:02:37Z</time></trkpt><trkpt lat="41.96569702624494" lon="0.02204741379689837"><ele>376.0</ele><time>2026-03-30T14:02:38Z</time></trkpt><trkpt lat="41.965621548324215" lon="0.021745558079318595"><ele>377.0</ele><time>2026-03-30T14:02:39Z</time></trkpt><trkpt lat="41.96554446162404" lon="0.02144866061431957"><ele>378.0</ele><time>2026-03-30T14:02:40Z</time></trkpt><trkpt lat="41.96547511354178" lon="0.021155064617508594"><ele>378.0</ele><time>2026-03-30T14:02:41Z</time></trkpt><trkpt lat="41.965408345849596" lon="0.020866911789500665"><ele>378.0</ele><time>2026-03-30T14:02:42Z</time></trkpt><trkpt lat="41.965344250729366" lon="0.02058358806937985"><ele>378.0</ele><time>2026-03-30T14:02:43Z</time></trkpt><trkpt lat="41.96527923075567" lon="0.020308331508359288"><ele>378.6666666666667</ele><time>2026-03-30T14:02:44Z</time></trkpt><trkpt lat="41.965210747226834" lon="0.020031276715070732"><ele>379.33333333333337</ele><time>2026-03-30T14:02:45Z</time></trkpt><trkpt lat="41.96514047971728" lon="0.019752232851305524"><ele>380.0</ele><time>2026-03-30T14:02:46Z</time></trkpt><trkpt lat="41.965069815916806" lon="0.01947386056901487"><ele>381.33333333333337</ele><time>2026-03-30T14:02:47Z</time></trkpt><trkpt lat="41.96499983957987" lon="0.019189894738510675"><ele>382.6666666666667</ele><time>2026-03-30T14:02:48Z</time></trkpt><trkpt lat="41.96493269838593" lon="0.018898231343481866"><ele>384.0</ele><time>2026-03-30T14:02:49Z</time></trkpt><trkpt lat="41.964867368776" lon="0.018604587235852822"><ele>386.0</ele><time>2026-03-30T14:02:50Z</time></trkpt><trkpt lat="41.964804901301214" lon="0.01830633188443635"><ele>388.0</ele><time>2026-03-30T14:02:51Z</time></trkpt><trkpt lat="41.964747062850236" lon="0.018002743140424257"><ele>388.0</ele><time>2026-03-30T14:02:52Z</time></trkpt><trkpt lat="41.96469774536668" lon="0.017693321472838613"><ele>388.0</ele><time>2026-03-30T14:02:53Z</time></trkpt><trkpt lat="41.96465927070037" lon="0.017379591206329027"><ele>388.5</ele><time>2026-03-30T14:02:54Z</time></trkpt><trkpt lat="41.9646287285096" lon="0.01705983994735076"><ele>389.0</ele><time>2026-03-30T14:02:55Z</time></trkpt><trkpt lat="41.96460687138781" lon="0.016731967125585168"><ele>391.0</ele><time>2026-03-30T14:02:56Z</time></trkpt><trkpt lat="41.96459178536487" lon="0.016404157065040517"><ele>393.0</ele><time>2026-03-30T14:02:57Z</time></trkpt><trkpt lat="41.96457611568247" lon="0.0160804681659701"><ele>394.5</ele><time>2026-03-30T14:02:58Z</time></trkpt><trkpt lat="41.96455807099113" lon="0.015762254013760545"><ele>396.0</ele><time>2026-03-30T14:02:59Z</time></trkpt><trkpt lat="41.96453493516223" lon="0.015458800179098646"><ele>396.0</ele><time>2026-03-30T14:03:00Z</time></trkpt><trkpt lat="41.96451340417571" lon="0.015156301610512905"><ele>396.0</ele><time>2026-03-30T14:03:01Z</time></trkpt><trkpt lat="41.964493060882894" lon="0.014851954538962904"><ele>396.5</ele><time>2026-03-30T14:03:02Z</time></trkpt><trkpt lat="41.96446148462699" lon="0.014543830677771251"><ele>397.0</ele><time>2026-03-30T14:03:03Z</time></trkpt><trkpt lat="41.964438505421505" lon="0.014237751382931563"><ele>397.5</ele><time>2026-03-30T14:03:04Z</time></trkpt><trkpt lat="41.96440729689305" lon="0.013922237389962084"><ele>398.0</ele><time>2026-03-30T14:03:05Z</time></trkpt><trkpt lat="41.96435360581507" lon="0.013607611034703163"><ele>399.0</ele><time>2026-03-30T14:03:06Z</time></trkpt><trkpt lat="41.9642903130392" lon="0.013299892325396996"><ele>400.0</ele><time>2026-03-30T14:03:07Z</time></trkpt><trkpt lat="41.96422066703924" lon="0.013010477797295495"><ele>401.5</ele><time>2026-03-30T14:03:08Z</time></trkpt><trkpt lat="41.96414840988556" lon="0.012715613156390674"><ele>403.0</ele><time>2026-03-30T14:03:09Z</time></trkpt><trkpt lat="41.96406436068911" lon="0.012427545597623844"><ele>403.6666666666667</ele><time>2026-03-30T14:03:10Z</time></trkpt><trkpt lat="41.963978321918326" lon="0.012150488342046812"><ele>404.33333333333337</ele><time>2026-03-30T14:03:11Z</time></trkpt><trkpt lat="41.963899194319815" lon="0.011888580651958485"><ele>405.0</ele><time>2026-03-30T14:03:12Z</time></trkpt><trkpt lat="41.963812802057696" lon="0.011631678789582513"><ele>406.33333333333337</ele><time>2026-03-30T14:03:13Z</time></trkpt><trkpt lat="41.96372408886006" lon="0.01137936616643191"><ele>407.6666666666667</ele><time>2026-03-30T14:03:14Z</time></trkpt><trkpt lat="41.96364112602612" lon="0.011127004908718416"><ele>409.0</ele><time>2026-03-30T14:03:15Z</time></trkpt><trkpt lat="41.96355977180494" lon="0.010879769084147117"><ele>410.33333333333337</ele><time>2026-03-30T14:03:16Z</time></trkpt><trkpt lat="41.9634797274344" lon="0.010635128030829518"><ele>411.66666666666663</ele><time>2026-03-30T14:03:17Z</time></trkpt><trkpt lat="41.963398611651265" lon="0.010403199012922372"><ele>413.0</ele><time>2026-03-30T14:03:18Z</time></trkpt><trkpt lat="41.963317542251325" lon="0.010165483399993054"><ele>414.66666666666663</ele><time>2026-03-30T14:03:19Z</time></trkpt><trkpt lat="41.963226229844835" lon="0.009917880417061004"><ele>416.33333333333337</ele><time>2026-03-30T14:03:20Z</time></trkpt><trkpt lat="41.96315884796036" lon="0.009690824870505118"><ele>418.0</ele><time>2026-03-30T14:03:21Z</time></trkpt><trkpt lat="41.96309492148053" lon="0.009485757741301313"><ele>418.0</ele><time>2026-03-30T14:03:22Z</time></trkpt><trkpt lat="41.96301940914478" lon="0.009278800575469145"><ele>418.0</ele><time>2026-03-30T14:03:23Z</time></trkpt><trkpt lat="41.96294614301861" lon="0.009068834240797217"><ele>418.0</ele><time>2026-03-30T14:03:24Z</time></trkpt><trkpt lat="41.96287521945974" lon="0.008869317695578338"><ele>418.6666666666667</ele><time>2026-03-30T14:03:25Z</time></trkpt><trkpt lat="41.962811767800495" lon="0.008693040427933257"><ele>419.33333333333337</ele><time>2026-03-30T14:03:26Z</time></trkpt><trkpt lat="41.962740776609856" lon="0.008498225608152445"><ele>420.0</ele><time>2026-03-30T14:03:27Z</time></trkpt><trkpt lat="41.96263727154442" lon="0.00822918779112098"><ele>420.0</ele><time>2026-03-30T14:03:28Z</time></trkpt><trkpt lat="41.962531450900514" lon="0.007935901157866514"><ele>420.0</ele><time>2026-03-30T14:03:29Z</time></trkpt><trkpt lat="41.962425753495154" lon="0.007655033178386985"><ele>421.0</ele><time>2026-03-30T14:03:30Z</time></trkpt><trkpt lat="41.962327548562115" lon="0.007390589401906957"><ele>422.0</ele><time>2026-03-30T14:03:31Z</time></trkpt><trkpt lat="41.962232580847584" lon="0.007143627423678771"><ele>423.0</ele><time>2026-03-30T14:03:32Z</time></trkpt><trkpt lat="41.962128658961326" lon="0.0069084311296443175"><ele>423.0</ele><time>2026-03-30T14:03:33Z</time></trkpt><trkpt lat="41.96202752426648" lon="0.006683280535953054"><ele>423.0</ele><time>2026-03-30T14:03:34Z</time></trkpt><trkpt lat="41.961939930378115" lon="0.006488462241024527"><ele>423.0</ele><time>2026-03-30T14:03:35Z</time></trkpt><trkpt lat="41.96186225046292" lon="0.006314036474359653"><ele>423.25</ele><time>2026-03-30T14:03:36Z</time></trkpt><trkpt lat="41.96178974558801" lon="0.0061522290389360666"><ele>423.5</ele><time>2026-03-30T14:03:37Z</time></trkpt><trkpt lat="41.96172123688219" lon="0.005998442081720988"><ele>423.75</ele><time>2026-03-30T14:03:38Z</time></trkpt><trkpt lat="41.96165121988535" lon="0.00584445582274925"><ele>424.0</ele><time>2026-03-30T14:03:39Z</time></trkpt><trkpt lat="41.96157926808938" lon="0.005687929974658986"><ele>426.25</ele><time>2026-03-30T14:03:40Z</time></trkpt><trkpt lat="41.9615062725003" lon="0.005531691776922004"><ele>428.5</ele><time>2026-03-30T14:03:41Z</time></trkpt><trkpt lat="41.96143370280325" lon="0.005381549223082812"><ele>430.75</ele><time>2026-03-30T14:03:42Z</time></trkpt><trkpt lat="41.96136045967725" lon="0.0052326978285532665"><ele>433.0</ele><time>2026-03-30T14:03:43Z</time></trkpt><trkpt lat="41.96128574522001" lon="0.0050849306324881735"><ele>433.5</ele><time>2026-03-30T14:03:44Z</time></trkpt><trkpt lat="41.96120892269974" lon="0.004941580618253531"><ele>434.0</ele><time>2026-03-30T14:03:45Z</time></trkpt><trkpt lat="41.96112987473993" lon="0.004800807619932266"><ele>434.5</ele><time>2026-03-30T14:03:46Z</time></trkpt><trkpt lat="41.961047473848" lon="0.004664776387125012"><ele>435.0</ele><time>2026-03-30T14:03:47Z</time></trkpt><trkpt lat="41.96096099736301" lon="0.004534435959795766"><ele>435.0</ele><time>2026-03-30T14:03:48Z</time></trkpt><trkpt lat="41.960870658594054" lon="0.004410734497605184"><ele>435.0</ele><time>2026-03-30T14:03:49Z</time></trkpt><trkpt lat="41.96077728606998" lon="0.0042919859988568365"><ele>435.0</ele><time>2026-03-30T14:03:50Z</time></trkpt><trkpt lat="41.9606817035299" lon="0.004176917690420386"><ele>435.0</ele><time>2026-03-30T14:03:51Z</time></trkpt><trkpt lat="41.960584787527345" lon="0.0040644020015515175"><ele>436.0</ele><time>2026-03-30T14:03:52Z</time></trkpt><trkpt lat="41.9604833201533" lon="0.003954609785654227"><ele>437.0</ele><time>2026-03-30T14:03:53Z</time></trkpt><trkpt lat="41.96038101502956" lon="0.0038435684545736234"><ele>438.0</ele><time>2026-03-30T14:03:54Z</time></trkpt><trkpt lat="41.96027641319498" lon="0.0037305782543844116"><ele>439.0</ele><time>2026-03-30T14:03:55Z</time></trkpt><trkpt lat="41.960176742144654" lon="0.0036230281689922307"><ele>439.0</ele><time>2026-03-30T14:03:56Z</time></trkpt><trkpt lat="41.96009278737936" lon="0.003524840427755205"><ele>439.0</ele><time>2026-03-30T14:03:57Z</time></trkpt><trkpt lat="41.96001326366013" lon="0.003435003139853575"><ele>439.0</ele><time>2026-03-30T14:03:58Z</time></trkpt><trkpt lat="41.959922573657444" lon="0.00331903178547721"><ele>439.0</ele><time>2026-03-30T14:03:59Z</time></trkpt><trkpt lat="41.95983002743617" lon="0.0031949191641003367"><ele>440.25</ele><time>2026-03-30T14:04:00Z</time></trkpt><trkpt lat="41.95974086764599" lon="0.0030612905095304343"><ele>441.5</ele><time>2026-03-30T14:04:01Z</time></trkpt><trkpt lat="41.959655561603135" lon="0.0029245003995437696"><ele>442.75</ele><time>2026-03-30T14:04:02Z</time></trkpt><trkpt lat="41.95957603585629" lon="0.002776796132123635"><ele>444.0</ele><time>2026-03-30T14:04:03Z</time></trkpt><trkpt lat="41.95949996963664" lon="0.0026269457752565524"><ele>444.25</ele><time>2026-03-30T14:04:04Z</time></trkpt><trkpt lat="41.959430735857836" lon="0.0024754884011400457"><ele>444.5</ele><time>2026-03-30T14:04:05Z</time></trkpt><trkpt lat="41.959366746964484" lon="0.0023167109357434047"><ele>444.75</ele><time>2026-03-30T14:04:06Z</time></trkpt><trkpt lat="41.95930635604024" lon="0.0021566053346295786"><ele>445.0</ele><time>2026-03-30T14:04:07Z</time></trkpt><trkpt lat="41.95924422101977" lon="0.0019922484947623464"><ele>445.75</ele><time>2026-03-30T14:04:08Z</time></trkpt><trkpt lat="41.95917645169882" lon="0.0018205063842131517"><ele>446.5</ele><time>2026-03-30T14:04:09Z</time></trkpt><trkpt lat="41.9591132436018" lon="0.0016426462775023238"><ele>447.25</ele><time>2026-03-30T14:04:10Z</time></trkpt><trkpt lat="41.95904528930738" lon="0.0014673476638969098"><ele>448.0</ele><time>2026-03-30T14:04:11Z</time></trkpt><trkpt lat="41.95898153271189" lon="0.001289567115556245"><ele>450.33333333333337</ele><time>2026-03-30T14:04:12Z</time></trkpt><trkpt lat="41.95890958250433" lon="0.0011161252634327742"><ele>452.66666666666663</ele><time>2026-03-30T14:04:13Z</time></trkpt><trkpt lat="41.958829885602086" lon="9.437115931536938E-4"><ele>455.0</ele><time>2026-03-30T14:04:14Z</time></trkpt><trkpt lat="41.958734941010036" lon="7.817663055958436E-4"><ele>457.5</ele><time>2026-03-30T14:04:15Z</time></trkpt><trkpt lat="41.958634198277416" lon="6.281320440556561E-4"><ele>460.0</ele><time>2026-03-30T14:04:16Z</time></trkpt><trkpt lat="41.95852655012306" lon="4.879478355684426E-4"><ele>462.5</ele><time>2026-03-30T14:04:17Z</time></trkpt><trkpt lat="41.958424236925694" lon="3.6359882746690914E-4"><ele>465.0</ele><time>2026-03-30T14:04:18Z</time></trkpt><trkpt lat="41.95832453123487" lon="2.581862920625476E-4"><ele>465.0</ele><time>2026-03-30T14:04:19Z</time></trkpt><trkpt lat="41.9582231119363" lon="1.7058717739764617E-4"><ele>465.0</ele><time>2026-03-30T14:04:20Z</time></trkpt><trkpt lat="41.958123488078236" lon="8.66203353864623E-5"><ele>465.0</ele><time>2026-03-30T14:04:21Z</time></trkpt><trkpt lat="41.95802525550406" lon="9.061942248709875E-6"><ele>465.0</ele><time>2026-03-30T14:04:22Z</time></trkpt><trkpt lat="41.95792826827818" lon="-5.8530803800120285E-5"><ele>465.0</ele><time>2026-03-30T14:04:23Z</time></trkpt><trkpt lat="41.957840843379664" lon="-1.1138801599273589E-4"><ele>465.0</ele><time>2026-03-30T14:04:24Z</time></trkpt><trkpt lat="41.95776597202197" lon="-1.610910059381304E-4"><ele>465.0</ele><time>2026-03-30T14:04:25Z</time></trkpt><trkpt lat="41.957699867980345" lon="-2.0988216146279208E-4"><ele>465.0</ele><time>2026-03-30T14:04:26Z</time></trkpt><trkpt lat="41.95764500041552" lon="-2.593264365973381E-4"><ele>465.0</ele><time>2026-03-30T14:04:27Z</time></trkpt><trkpt lat="41.95755752172522" lon="-3.45723268186644E-4"><ele>465.0</ele><time>2026-03-30T14:04:29Z</time></trkpt><trkpt lat="41.95746432892562" lon="-4.582395127159362E-4"><ele>465.5</ele><time>2026-03-30T14:04:31Z</time></trkpt><trkpt lat="41.957422944709" lon="-5.230603435153419E-4"><ele>466.0</ele><time>2026-03-30T14:04:32Z</time></trkpt><trkpt lat="41.957371080483405" lon="-6.734538452057503E-4"><ele>466.5</ele><time>2026-03-30T14:04:34Z</time></trkpt><trkpt lat="41.95736045705122" lon="-7.622198999933128E-4"><ele>467.0</ele><time>2026-03-30T14:04:35Z</time></trkpt><trkpt lat="41.957369559455394" lon="-8.572817593427946E-4"><ele>467.5</ele><time>2026-03-30T14:04:36Z</time></trkpt><trkpt lat="41.957377920798294" lon="-9.580454599428084E-4"><ele>468.0</ele><time>2026-03-30T14:04:37Z</time></trkpt><trkpt lat="41.95736847651163" lon="-0.0010682936899322976"><ele>468.0</ele><time>2026-03-30T14:04:38Z</time></trkpt><trkpt lat="41.957329457338346" lon="-0.0011730175784426355"><ele>467.99999999999994</ele><time>2026-03-30T14:04:39Z</time></trkpt><trkpt lat="41.95729965864767" lon="-0.0012723135961237699"><ele>467.99999999999994</ele><time>2026-03-30T14:04:40Z</time></trkpt><trkpt lat="41.957293340143906" lon="-0.0014094462124757327"><ele>468.0</ele><time>2026-03-30T14:04:41Z</time></trkpt><trkpt lat="41.957262270331" lon="-0.0015716639408923157"><ele>468.0</ele><time>2026-03-30T14:04:42Z</time></trkpt><trkpt lat="41.957215282546585" lon="-0.0017730849507006908"><ele>468.33333333333337</ele><time>2026-03-30T14:04:43Z</time></trkpt><trkpt lat="41.957153458154075" lon="-0.002040083674992166"><ele>468.6666666666667</ele><time>2026-03-30T14:04:44Z</time></trkpt><trkpt lat="41.95707869876219" lon="-0.002318331329346887"><ele>469.0</ele><time>2026-03-30T14:04:45Z</time></trkpt><trkpt lat="41.956984733234734" lon="-0.0026107444979623965"><ele>469.0</ele><time>2026-03-30T14:04:46Z</time></trkpt><trkpt lat="41.9568933603599" lon="-0.0029342540324791585"><ele>469.0</ele><time>2026-03-30T14:04:47Z</time></trkpt><trkpt lat="41.95680808991367" lon="-0.0032303652454546018"><ele>468.5</ele><time>2026-03-30T14:04:48Z</time></trkpt><trkpt lat="41.95672458490054" lon="-0.0035184209876487345"><ele>468.0</ele><time>2026-03-30T14:04:49Z</time></trkpt><trkpt lat="41.9566303065791" lon="-0.003808098285472104"><ele>465.33333333333337</ele><time>2026-03-30T14:04:50Z</time></trkpt><trkpt lat="41.95656665336462" lon="-0.004092332386005987"><ele>462.6666666666667</ele><time>2026-03-30T14:04:51Z</time></trkpt><trkpt lat="41.956505497462764" lon="-0.0043548985037751625"><ele>460.0</ele><time>2026-03-30T14:04:52Z</time></trkpt><trkpt lat="41.956429145516054" lon="-0.0045980542571231325"><ele>460.0</ele><time>2026-03-30T14:04:53Z</time></trkpt><trkpt lat="41.956347189434" lon="-0.004851260097424275"><ele>460.0</ele><time>2026-03-30T14:04:54Z</time></trkpt><trkpt lat="41.95627259646654" lon="-0.005106538729196197"><ele>460.0</ele><time>2026-03-30T14:04:55Z</time></trkpt><trkpt lat="41.95619772424597" lon="-0.005360034867845877"><ele>459.6666666666667</ele><time>2026-03-30T14:04:56Z</time></trkpt><trkpt lat="41.956127876271275" lon="-0.0056051891631332725"><ele>459.33333333333337</ele><time>2026-03-30T14:04:57Z</time></trkpt><trkpt lat="41.956059102225915" lon="-0.0058540378368690795"><ele>459.0</ele><time>2026-03-30T14:04:58Z</time></trkpt><trkpt lat="41.95598649860058" lon="-0.006102862473951768"><ele>458.0</ele><time>2026-03-30T14:04:59Z</time></trkpt><trkpt lat="41.95591048523509" lon="-0.006348389605175914"><ele>457.0</ele><time>2026-03-30T14:05:00Z</time></trkpt><trkpt lat="41.95583428515919" lon="-0.0065908469146787165"><ele>456.0</ele><time>2026-03-30T14:05:01Z</time></trkpt><trkpt lat="41.95575762203828" lon="-0.006839393109099628"><ele>454.33333333333337</ele><time>2026-03-30T14:05:02Z</time></trkpt><trkpt lat="41.95568806189337" lon="-0.007091909466917459"><ele>452.6666666666667</ele><time>2026-03-30T14:05:03Z</time></trkpt><trkpt lat="41.955614496827856" lon="-0.007348184683897568"><ele>451.0</ele><time>2026-03-30T14:05:04Z</time></trkpt><trkpt lat="41.95553412959863" lon="-0.007595799713077446"><ele>449.5</ele><time>2026-03-30T14:05:05Z</time></trkpt><trkpt lat="41.95544254872427" lon="-0.007871738691611504"><ele>448.0</ele><time>2026-03-30T14:05:06Z</time></trkpt><trkpt lat="41.95535322996074" lon="-0.00815613455979035"><ele>447.0</ele><time>2026-03-30T14:05:07Z</time></trkpt><trkpt lat="41.955265058435465" lon="-0.008447914584459608"><ele>446.0</ele><time>2026-03-30T14:05:08Z</time></trkpt><trkpt lat="41.95517139858673" lon="-0.008764425321688899"><ele>446.0</ele><time>2026-03-30T14:05:09Z</time></trkpt><trkpt lat="41.95508258454775" lon="-0.00907899893050212"><ele>446.0</ele><time>2026-03-30T14:05:10Z</time></trkpt><trkpt lat="41.95499083002306" lon="-0.009384430563378387"><ele>445.0</ele><time>2026-03-30T14:05:11Z</time></trkpt><trkpt lat="41.95490164381505" lon="-0.00967470307874791"><ele>444.0</ele><time>2026-03-30T14:05:12Z</time></trkpt><trkpt lat="41.95481616671662" lon="-0.009963445157372085"><ele>443.33333333333337</ele><time>2026-03-30T14:05:13Z</time></trkpt><trkpt lat="41.954740707051926" lon="-0.010245950056740016"><ele>442.6666666666667</ele><time>2026-03-30T14:05:14Z</time></trkpt><trkpt lat="41.95466317581684" lon="-0.010521106259586094"><ele>442.0</ele><time>2026-03-30T14:05:15Z</time></trkpt><trkpt lat="41.95458518746288" lon="-0.01078377879472629"><ele>441.33333333333337</ele><time>2026-03-30T14:05:16Z</time></trkpt><trkpt lat="41.95450779283116" lon="-0.011055448171440795"><ele>440.66666666666663</ele><time>2026-03-30T14:05:17Z</time></trkpt><trkpt lat="41.95442749845528" lon="-0.011336561570468025"><ele>440.0</ele><time>2026-03-30T14:05:18Z</time></trkpt><trkpt lat="41.954338588005285" lon="-0.011647955430008548"><ele>440.0</ele><time>2026-03-30T14:05:19Z</time></trkpt><trkpt lat="41.95423899081853" lon="-0.011964202720431203"><ele>440.0</ele><time>2026-03-30T14:05:20Z</time></trkpt><trkpt lat="41.95413414934607" lon="-0.012333725352846369"><ele>438.5</ele><time>2026-03-30T14:05:21Z</time></trkpt><trkpt lat="41.95402300377564" lon="-0.012711766548437795"><ele>437.0</ele><time>2026-03-30T14:05:22Z</time></trkpt><trkpt lat="41.95390327228828" lon="-0.01312842665313611"><ele>436.0</ele><time>2026-03-30T14:05:23Z</time></trkpt><trkpt lat="41.95377187255846" lon="-0.013536743859454385"><ele>435.0</ele><time>2026-03-30T14:05:24Z</time></trkpt><trkpt lat="41.95367445607063" lon="-0.013943869788409531"><ele>434.5</ele><time>2026-03-30T14:05:25Z</time></trkpt><trkpt lat="41.95356897641199" lon="-0.014314831917818807"><ele>434.0</ele><time>2026-03-30T14:05:26Z</time></trkpt><trkpt lat="41.95345558801881" lon="-0.014671663221894568"><ele>434.5</ele><time>2026-03-30T14:05:27Z</time></trkpt><trkpt lat="41.95334983977462" lon="-0.015026505829997925"><ele>435.0</ele><time>2026-03-30T14:05:28Z</time></trkpt><trkpt lat="41.95324412063476" lon="-0.015384832165347109"><ele>435.0</ele><time>2026-03-30T14:05:29Z</time></trkpt><trkpt lat="41.95313397730113" lon="-0.01575674259188993"><ele>435.0</ele><time>2026-03-30T14:05:30Z</time></trkpt><trkpt lat="41.95302944503098" lon="-0.016117086150386567"><ele>434.0</ele><time>2026-03-30T14:05:31Z</time></trkpt><trkpt lat="41.952929185712556" lon="-0.01647949941715443"><ele>433.0</ele><time>2026-03-30T14:05:32Z</time></trkpt><trkpt lat="41.952815787396396" lon="-0.016857293010319154"><ele>433.0</ele><time>2026-03-30T14:05:33Z</time></trkpt><trkpt lat="41.95271475899274" lon="-0.017224684465779485"><ele>433.0</ele><time>2026-03-30T14:05:34Z</time></trkpt><trkpt lat="41.95261065242758" lon="-0.017583137430816347"><ele>431.5</ele><time>2026-03-30T14:05:35Z</time></trkpt><trkpt lat="41.952499311533394" lon="-0.01793791105588031"><ele>430.0</ele><time>2026-03-30T14:05:36Z</time></trkpt><trkpt lat="41.952391725296174" lon="-0.0182944010641711"><ele>429.0</ele><time>2026-03-30T14:05:37Z</time></trkpt><trkpt lat="41.95228634377114" lon="-0.01864314768986859"><ele>428.0</ele><time>2026-03-30T14:05:38Z</time></trkpt><trkpt lat="41.95219458803091" lon="-0.01899095060919315"><ele>427.5</ele><time>2026-03-30T14:05:39Z</time></trkpt><trkpt lat="41.95210630074531" lon="-0.019297364380194852"><ele>427.0</ele><time>2026-03-30T14:05:40Z</time></trkpt><trkpt lat="41.95201504295674" lon="-0.019584323865044193"><ele>427.0</ele><time>2026-03-30T14:05:41Z</time></trkpt><trkpt lat="41.95193065258896" lon="-0.01987061499284323"><ele>427.0</ele><time>2026-03-30T14:05:42Z</time></trkpt><trkpt lat="41.95184957742434" lon="-0.020171312240998093"><ele>427.0</ele><time>2026-03-30T14:05:43Z</time></trkpt><trkpt lat="41.95176016144588" lon="-0.020459071426478206"><ele>427.0</ele><time>2026-03-30T14:05:44Z</time></trkpt><trkpt lat="41.95167330984963" lon="-0.0207498824382234"><ele>425.5</ele><time>2026-03-30T14:05:45Z</time></trkpt><trkpt lat="41.95158767034817" lon="-0.02105266020239114"><ele>424.0</ele><time>2026-03-30T14:05:46Z</time></trkpt><trkpt lat="41.95149593606243" lon="-0.02134710464044922"><ele>424.0</ele><time>2026-03-30T14:05:47Z</time></trkpt><trkpt lat="41.951405710812146" lon="-0.021641514817577024"><ele>424.0</ele><time>2026-03-30T14:05:48Z</time></trkpt><trkpt lat="41.95132258912099" lon="-0.021932301009204753"><ele>424.0</ele><time>2026-03-30T14:05:49Z</time></trkpt><trkpt lat="41.951225821635255" lon="-0.02225015732444628"><ele>424.0</ele><time>2026-03-30T14:05:50Z</time></trkpt><trkpt lat="41.951132631102965" lon="-0.022570740958597978"><ele>424.0</ele><time>2026-03-30T14:05:51Z</time></trkpt><trkpt lat="41.95103920238058" lon="-0.02287964262939268"><ele>424.0</ele><time>2026-03-30T14:05:52Z</time></trkpt><trkpt lat="41.95095556491695" lon="-0.02318138569481763"><ele>425.0</ele><time>2026-03-30T14:05:53Z</time></trkpt><trkpt lat="41.95087392685787" lon="-0.02348316674484928"><ele>426.0</ele><time>2026-03-30T14:05:54Z</time></trkpt><trkpt lat="41.950778807453936" lon="-0.02379084514957838"><ele>426.0</ele><time>2026-03-30T14:05:55Z</time></trkpt><trkpt lat="41.95068903534738" lon="-0.024093601918564356"><ele>426.0</ele><time>2026-03-30T14:05:56Z</time></trkpt><trkpt lat="41.95059523112318" lon="-0.02441078532511323"><ele>425.0</ele><time>2026-03-30T14:05:57Z</time></trkpt><trkpt lat="41.95050246437405" lon="-0.02473769567500766"><ele>424.0</ele><time>2026-03-30T14:05:58Z</time></trkpt><trkpt lat="41.95040595074788" lon="-0.025065541757651133"><ele>423.5</ele><time>2026-03-30T14:05:59Z</time></trkpt><trkpt lat="41.95029973512176" lon="-0.025398664862671887"><ele>423.0</ele><time>2026-03-30T14:06:00Z</time></trkpt><trkpt lat="41.95020752378336" lon="-0.025721499579262695"><ele>422.0</ele><time>2026-03-30T14:06:01Z</time></trkpt><trkpt lat="41.950115634192485" lon="-0.026047671009984043"><ele>421.0</ele><time>2026-03-30T14:06:02Z</time></trkpt><trkpt lat="41.95001883822931" lon="-0.02637164550975852"><ele>420.5</ele><time>2026-03-30T14:06:03Z</time></trkpt><trkpt lat="41.94992398825311" lon="-0.026692285279946174"><ele>420.0</ele><time>2026-03-30T14:06:04Z</time></trkpt><trkpt lat="41.94983163957756" lon="-0.02700878245130639"><ele>420.0</ele><time>2026-03-30T14:06:05Z</time></trkpt><trkpt lat="41.94973607223204" lon="-0.027326107734769577"><ele>420.0</ele><time>2026-03-30T14:06:06Z</time></trkpt><trkpt lat="41.9496456764716" lon="-0.02763493266426951"><ele>420.0</ele><time>2026-03-30T14:06:07Z</time></trkpt><trkpt lat="41.94955356336595" lon="-0.02794511062779462"><ele>420.0</ele><time>2026-03-30T14:06:08Z</time></trkpt><trkpt lat="41.94946808864471" lon="-0.028264256098939122"><ele>419.5</ele><time>2026-03-30T14:06:09Z</time></trkpt><trkpt lat="41.949373794090604" lon="-0.028582931984787185"><ele>419.0</ele><time>2026-03-30T14:06:10Z</time></trkpt><trkpt lat="41.949276911533374" lon="-0.028896873759847688"><ele>417.0</ele><time>2026-03-30T14:06:11Z</time></trkpt><trkpt lat="41.949178205443005" lon="-0.02922035318553651"><ele>415.0</ele><time>2026-03-30T14:06:12Z</time></trkpt><trkpt lat="41.94908872978886" lon="-0.029533417407590246"><ele>415.0</ele><time>2026-03-30T14:06:13Z</time></trkpt><trkpt lat="41.94899947332622" lon="-0.029848802305657805"><ele>415.0</ele><time>2026-03-30T14:06:14Z</time></trkpt><trkpt lat="41.94890828249591" lon="-0.030158113783791872"><ele>415.5</ele><time>2026-03-30T14:06:15Z</time></trkpt><trkpt lat="41.94881128388723" lon="-0.030477346189418754"><ele>416.0</ele><time>2026-03-30T14:06:16Z</time></trkpt><trkpt lat="41.94872028677877" lon="-0.03079082509508759"><ele>416.0</ele><time>2026-03-30T14:06:17Z</time></trkpt><trkpt lat="41.948626186389376" lon="-0.031112854062890043"><ele>416.0</ele><time>2026-03-30T14:06:18Z</time></trkpt><trkpt lat="41.94853442510392" lon="-0.0314257501642129"><ele>415.5</ele><time>2026-03-30T14:06:19Z</time></trkpt><trkpt lat="41.948443159489365" lon="-0.031739116411088314"><ele>415.0</ele><time>2026-03-30T14:06:20Z</time></trkpt><trkpt lat="41.948349390659274" lon="-0.03205559014966754"><ele>415.0</ele><time>2026-03-30T14:06:21Z</time></trkpt><trkpt lat="41.94826043486633" lon="-0.03235828593552965"><ele>415.0</ele><time>2026-03-30T14:06:22Z</time></trkpt><trkpt lat="41.94816826228943" lon="-0.03267345235734134"><ele>415.0</ele><time>2026-03-30T14:06:23Z</time></trkpt><trkpt lat="41.94807593768639" lon="-0.032986501758939094"><ele>415.0</ele><time>2026-03-30T14:06:24Z</time></trkpt><trkpt lat="41.94798212753994" lon="-0.03330035264041815"><ele>414.5</ele><time>2026-03-30T14:06:25Z</time></trkpt><trkpt lat="41.94788416859181" lon="-0.033622267213717506"><ele>414.0</ele><time>2026-03-30T14:06:26Z</time></trkpt><trkpt lat="41.947792252032215" lon="-0.033947157070000615"><ele>414.0</ele><time>2026-03-30T14:06:27Z</time></trkpt><trkpt lat="41.94770222524193" lon="-0.034281166122320204"><ele>414.0</ele><time>2026-03-30T14:06:28Z</time></trkpt><trkpt lat="41.94761098706866" lon="-0.034606039564499556"><ele>413.5</ele><time>2026-03-30T14:06:29Z</time></trkpt><trkpt lat="41.947511021644196" lon="-0.0349324503167269"><ele>413.0</ele><time>2026-03-30T14:06:30Z</time></trkpt><trkpt lat="41.94742427330408" lon="-0.035248609558684744"><ele>412.5</ele><time>2026-03-30T14:06:31Z</time></trkpt><trkpt lat="41.94732356115884" lon="-0.035577717109127785"><ele>412.0</ele><time>2026-03-30T14:06:32Z</time></trkpt><trkpt lat="41.94722823672356" lon="-0.0359058659227301"><ele>411.0</ele><time>2026-03-30T14:06:33Z</time></trkpt><trkpt lat="41.947131766429656" lon="-0.03623020330140233"><ele>410.0</ele><time>2026-03-30T14:06:34Z</time></trkpt><trkpt lat="41.9470357532243" lon="-0.03655939765191165"><ele>410.5</ele><time>2026-03-30T14:06:35Z</time></trkpt><trkpt lat="41.946941229691994" lon="-0.036891966003630414"><ele>411.0</ele><time>2026-03-30T14:06:36Z</time></trkpt><trkpt lat="41.94684109843455" lon="-0.03722248917090142"><ele>411.5</ele><time>2026-03-30T14:06:37Z</time></trkpt><trkpt lat="41.94673655727379" lon="-0.0375565746716279"><ele>412.0</ele><time>2026-03-30T14:06:38Z</time></trkpt><trkpt lat="41.9466375140201" lon="-0.03789771786915991"><ele>411.0</ele><time>2026-03-30T14:06:39Z</time></trkpt><trkpt lat="41.94654426801354" lon="-0.03823518915542725"><ele>410.0</ele><time>2026-03-30T14:06:40Z</time></trkpt><trkpt lat="41.946446916812285" lon="-0.03856767497398965"><ele>409.5</ele><time>2026-03-30T14:06:41Z</time></trkpt><trkpt lat="41.94634544520115" lon="-0.03889252884741077"><ele>409.0</ele><time>2026-03-30T14:06:42Z</time></trkpt><trkpt lat="41.94624406031813" lon="-0.03921305037427167"><ele>409.0</ele><time>2026-03-30T14:06:43Z</time></trkpt><trkpt lat="41.94615155484573" lon="-0.03953899462801443"><ele>409.0</ele><time>2026-03-30T14:06:44Z</time></trkpt><trkpt lat="41.94606633712549" lon="-0.0398414432456842"><ele>409.5</ele><time>2026-03-30T14:06:45Z</time></trkpt><trkpt lat="41.94597920940017" lon="-0.040126206475786984"><ele>410.0</ele><time>2026-03-30T14:06:46Z</time></trkpt><trkpt lat="41.94589780231974" lon="-0.040417381907956185"><ele>410.0</ele><time>2026-03-30T14:06:47Z</time></trkpt><trkpt lat="41.94580842440445" lon="-0.040707928321632204"><ele>410.0</ele><time>2026-03-30T14:06:48Z</time></trkpt><trkpt lat="41.94572642843184" lon="-0.041004883385436126"><ele>410.5</ele><time>2026-03-30T14:06:49Z</time></trkpt><trkpt lat="41.94563451602263" lon="-0.041301072843176065"><ele>411.0</ele><time>2026-03-30T14:06:50Z</time></trkpt><trkpt lat="41.94553786264052" lon="-0.04160030090285883"><ele>411.0</ele><time>2026-03-30T14:06:51Z</time></trkpt><trkpt lat="41.94545594043546" lon="-0.04191116523024531"><ele>411.0</ele><time>2026-03-30T14:06:52Z</time></trkpt><trkpt lat="41.9453649177682" lon="-0.04221399639525487"><ele>411.0</ele><time>2026-03-30T14:06:53Z</time></trkpt><trkpt lat="41.94527860657985" lon="-0.04251885573530847"><ele>411.0</ele><time>2026-03-30T14:06:54Z</time></trkpt><trkpt lat="41.94519176839294" lon="-0.04282016992062157"><ele>411.0</ele><time>2026-03-30T14:06:55Z</time></trkpt><trkpt lat="41.945106099256165" lon="-0.04312021855548273"><ele>411.0</ele><time>2026-03-30T14:06:56Z</time></trkpt><trkpt lat="41.94501523354428" lon="-0.0434215845411189"><ele>412.0</ele><time>2026-03-30T14:06:57Z</time></trkpt><trkpt lat="41.944924334995825" lon="-0.043720010613074976"><ele>413.0</ele><time>2026-03-30T14:06:58Z</time></trkpt><trkpt lat="41.944837499008855" lon="-0.044016868481524474"><ele>412.5</ele><time>2026-03-30T14:06:59Z</time></trkpt><trkpt lat="41.9447420576536" lon="-0.044317964640756866"><ele>412.0</ele><time>2026-03-30T14:07:00Z</time></trkpt><trkpt lat="41.94465414373932" lon="-0.04463426484820213"><ele>412.0</ele><time>2026-03-30T14:07:01Z</time></trkpt><trkpt lat="41.94456681201401" lon="-0.04494703109722658"><ele>412.0</ele><time>2026-03-30T14:07:02Z</time></trkpt><trkpt lat="41.94447049180044" lon="-0.04525174974621417"><ele>413.0</ele><time>2026-03-30T14:07:03Z</time></trkpt><trkpt lat="41.94438165825902" lon="-0.045562353141786256"><ele>414.0</ele><time>2026-03-30T14:07:04Z</time></trkpt><trkpt lat="41.94428654893352" lon="-0.045868850904967194"><ele>414.0</ele><time>2026-03-30T14:07:05Z</time></trkpt><trkpt lat="41.94419501703398" lon="-0.0461725414598159"><ele>414.0</ele><time>2026-03-30T14:07:06Z</time></trkpt><trkpt lat="41.944104348685634" lon="-0.04648946358375182"><ele>414.5</ele><time>2026-03-30T14:07:07Z</time></trkpt><trkpt lat="41.94400694460343" lon="-0.0468192422421029"><ele>415.0</ele><time>2026-03-30T14:07:08Z</time></trkpt><trkpt lat="41.94390736187765" lon="-0.04715576166938702"><ele>415.0</ele><time>2026-03-30T14:07:09Z</time></trkpt><trkpt lat="41.94381037581523" lon="-0.047507274754724195"><ele>415.0</ele><time>2026-03-30T14:07:10Z</time></trkpt><trkpt lat="41.94371086154385" lon="-0.047853232789416146"><ele>415.0</ele><time>2026-03-30T14:07:11Z</time></trkpt><trkpt lat="41.94360989684156" lon="-0.04819502132116445"><ele>415.0</ele><time>2026-03-30T14:07:12Z</time></trkpt><trkpt lat="41.94350933636794" lon="-0.04853794100106016"><ele>414.5</ele><time>2026-03-30T14:07:13Z</time></trkpt><trkpt lat="41.94340702864381" lon="-0.04888533275103288"><ele>414.0</ele><time>2026-03-30T14:07:14Z</time></trkpt><trkpt lat="41.94329821823655" lon="-0.04924109837193554"><ele>415.5</ele><time>2026-03-30T14:07:15Z</time></trkpt><trkpt lat="41.943189467082334" lon="-0.0496065793304651"><ele>417.0</ele><time>2026-03-30T14:07:16Z</time></trkpt><trkpt lat="41.94309277858437" lon="-0.04994813861964593"><ele>418.0</ele><time>2026-03-30T14:07:17Z</time></trkpt><trkpt lat="41.943004190715264" lon="-0.05026272405553729"><ele>419.0</ele><time>2026-03-30T14:07:18Z</time></trkpt><trkpt lat="41.942918600982594" lon="-0.050552965356583345"><ele>420.0</ele><time>2026-03-30T14:07:19Z</time></trkpt><trkpt lat="41.94282986557721" lon="-0.05083660527350702"><ele>421.0</ele><time>2026-03-30T14:07:20Z</time></trkpt><trkpt lat="41.94274164529395" lon="-0.05112985550326082"><ele>421.0</ele><time>2026-03-30T14:07:21Z</time></trkpt><trkpt lat="41.9426612357436" lon="-0.051431397303326506"><ele>421.0</ele><time>2026-03-30T14:07:22Z</time></trkpt><trkpt lat="41.942580631081825" lon="-0.051728305163515155"><ele>422.5</ele><time>2026-03-30T14:07:23Z</time></trkpt><trkpt lat="41.94249120516057" lon="-0.05201463306970219"><ele>424.0</ele><time>2026-03-30T14:07:24Z</time></trkpt><trkpt lat="41.942379382724624" lon="-0.05229178860900508"><ele>427.5</ele><time>2026-03-30T14:07:25Z</time></trkpt><trkpt lat="41.94223662420455" lon="-0.052549073173831735"><ele>431.0</ele><time>2026-03-30T14:07:26Z</time></trkpt><trkpt lat="41.94206651834892" lon="-0.05278631419423862"><ele>431.0</ele><time>2026-03-30T14:07:27Z</time></trkpt><trkpt lat="41.94188241413665" lon="-0.053010052826932136"><ele>431.0</ele><time>2026-03-30T14:07:28Z</time></trkpt><trkpt lat="41.941696359916406" lon="-0.053228766058332024"><ele>428.5</ele><time>2026-03-30T14:07:29Z</time></trkpt><trkpt lat="41.94150415215687" lon="-0.05344740267694998"><ele>426.0</ele><time>2026-03-30T14:07:30Z</time></trkpt><trkpt lat="41.94131699746799" lon="-0.0536764309019943"><ele>426.0</ele><time>2026-03-30T14:07:31Z</time></trkpt><trkpt lat="41.94114578142199" lon="-0.05393258162053925"><ele>426.0</ele><time>2026-03-30T14:07:32Z</time></trkpt><trkpt lat="41.94099904758826" lon="-0.0542176945949843"><ele>425.5</ele><time>2026-03-30T14:07:33Z</time></trkpt><trkpt lat="41.9409000319016" lon="-0.05453237942881415"><ele>425.0</ele><time>2026-03-30T14:07:34Z</time></trkpt><trkpt lat="41.94082082452639" lon="-0.0548495907151784"><ele>425.0</ele><time>2026-03-30T14:07:35Z</time></trkpt><trkpt lat="41.94075794337343" lon="-0.05517128630226967"><ele>425.0</ele><time>2026-03-30T14:07:36Z</time></trkpt><trkpt lat="41.94069045906443" lon="-0.05549074741103767"><ele>424.0</ele><time>2026-03-30T14:07:37Z</time></trkpt><trkpt lat="41.94066358024784" lon="-0.055822734060645494"><ele>423.0</ele><time>2026-03-30T14:07:38Z</time></trkpt><trkpt lat="41.94062067533298" lon="-0.056156286527505504"><ele>423.0</ele><time>2026-03-30T14:07:39Z</time></trkpt><trkpt lat="41.94056514861699" lon="-0.05649070100909372"><ele>423.0</ele><time>2026-03-30T14:07:40Z</time></trkpt><trkpt lat="41.94051129590614" lon="-0.056828921426094234"><ele>422.5</ele><time>2026-03-30T14:07:41Z</time></trkpt><trkpt lat="41.94045009946751" lon="-0.057165420135699016"><ele>422.0</ele><time>2026-03-30T14:07:42Z</time></trkpt><trkpt lat="41.94036125607785" lon="-0.057496972255036874"><ele>422.0</ele><time>2026-03-30T14:07:43Z</time></trkpt><trkpt lat="41.94024769315621" lon="-0.05782219056054663"><ele>422.0</ele><time>2026-03-30T14:07:44Z</time></trkpt><trkpt lat="41.94012341046992" lon="-0.058143025582484194"><ele>420.5</ele><time>2026-03-30T14:07:45Z</time></trkpt><trkpt lat="41.94000323409514" lon="-0.05846880876418855"><ele>419.0</ele><time>2026-03-30T14:07:46Z</time></trkpt><trkpt lat="41.93988679164439" lon="-0.0587934461970449"><ele>419.0</ele><time>2026-03-30T14:07:47Z</time></trkpt><trkpt lat="41.93976591063902" lon="-0.059114748977474756"><ele>419.0</ele><time>2026-03-30T14:07:48Z</time></trkpt><trkpt lat="41.9396322731156" lon="-0.059427524444978085"><ele>420.0</ele><time>2026-03-30T14:07:49Z</time></trkpt><trkpt lat="41.939461546202516" lon="-0.05972474415485416"><ele>421.0</ele><time>2026-03-30T14:07:50Z</time></trkpt><trkpt lat="41.93925954491884" lon="-0.06000785227838049"><ele>419.0</ele><time>2026-03-30T14:07:51Z</time></trkpt><trkpt lat="41.9390447255276" lon="-0.060284867015665745"><ele>417.0</ele><time>2026-03-30T14:07:52Z</time></trkpt><trkpt lat="41.93884337479584" lon="-0.060559842942142145"><ele>417.0</ele><time>2026-03-30T14:07:53Z</time></trkpt><trkpt lat="41.938650534941495" lon="-0.06083106442781759"><ele>417.0</ele><time>2026-03-30T14:07:54Z</time></trkpt><trkpt lat="41.938443372658625" lon="-0.06107201357380698"><ele>415.0</ele><time>2026-03-30T14:07:55Z</time></trkpt><trkpt lat="41.938249741728136" lon="-0.06132631741019545"><ele>413.0</ele><time>2026-03-30T14:07:56Z</time></trkpt><trkpt lat="41.93806115104772" lon="-0.06158768000548955"><ele>414.0</ele><time>2026-03-30T14:07:57Z</time></trkpt><trkpt lat="41.93787569729534" lon="-0.061858864115115895"><ele>415.0</ele><time>2026-03-30T14:07:58Z</time></trkpt><trkpt lat="41.93772643210445" lon="-0.06216112457769175"><ele>413.0</ele><time>2026-03-30T14:07:59Z</time></trkpt><trkpt lat="41.93753797076861" lon="-0.062416948743192056"><ele>411.0</ele><time>2026-03-30T14:08:00Z</time></trkpt><trkpt lat="41.9373464486358" lon="-0.06266218605661639"><ele>411.0</ele><time>2026-03-30T14:08:01Z</time></trkpt><trkpt lat="41.93714853194186" lon="-0.06289566890394575"><ele>411.0</ele><time>2026-03-30T14:08:02Z</time></trkpt><trkpt lat="41.936949702516685" lon="-0.06312670666272463"><ele>411.0</ele><time>2026-03-30T14:08:03Z</time></trkpt><trkpt lat="41.936753921648965" lon="-0.06336027517140636"><ele>411.0</ele><time>2026-03-30T14:08:04Z</time></trkpt><trkpt lat="41.93655558201331" lon="-0.06358850676350954"><ele>410.0</ele><time>2026-03-30T14:08:05Z</time></trkpt><trkpt lat="41.9363556285067" lon="-0.06381287861132925"><ele>409.0</ele><time>2026-03-30T14:08:06Z</time></trkpt><trkpt lat="41.93615802103001" lon="-0.06403608449999741"><ele>408.5</ele><time>2026-03-30T14:08:07Z</time></trkpt><trkpt lat="41.935961433468904" lon="-0.0642600018918153"><ele>408.0</ele><time>2026-03-30T14:08:08Z</time></trkpt><trkpt lat="41.93576807639411" lon="-0.06448338157452632"><ele>406.5</ele><time>2026-03-30T14:08:09Z</time></trkpt><trkpt lat="41.93557626683386" lon="-0.06470204990688028"><ele>405.0</ele><time>2026-03-30T14:08:10Z</time></trkpt><trkpt lat="41.935395129549214" lon="-0.0649115689939647"><ele>404.66666666666663</ele><time>2026-03-30T14:08:11Z</time></trkpt><trkpt lat="41.93523152296042" lon="-0.0651075529126177"><ele>404.3333333333333</ele><time>2026-03-30T14:08:12Z</time></trkpt><trkpt lat="41.93510125769883" lon="-0.06530346641390106"><ele>404.0</ele><time>2026-03-30T14:08:13Z</time></trkpt><trkpt lat="41.934986522599274" lon="-0.06551571099106666"><ele>403.0</ele><time>2026-03-30T14:08:14Z</time></trkpt><trkpt lat="41.934876726100555" lon="-0.06574071381800033"><ele>402.0</ele><time>2026-03-30T14:08:15Z</time></trkpt><trkpt lat="41.934761530460854" lon="-0.06596100288970204"><ele>401.0</ele><time>2026-03-30T14:08:16Z</time></trkpt><trkpt lat="41.934657308793135" lon="-0.06619583321987059"><ele>400.3333333333333</ele><time>2026-03-30T14:08:17Z</time></trkpt><trkpt lat="41.93456353494047" lon="-0.06643243574022163"><ele>399.66666666666663</ele><time>2026-03-30T14:08:18Z</time></trkpt><trkpt lat="41.93446199592002" lon="-0.0666800445642558"><ele>399.0</ele><time>2026-03-30T14:08:19Z</time></trkpt><trkpt lat="41.93435938424454" lon="-0.06692512866295083"><ele>398.0</ele><time>2026-03-30T14:08:20Z</time></trkpt><trkpt lat="41.93425505275557" lon="-0.06716803037754598"><ele>397.0</ele><time>2026-03-30T14:08:21Z</time></trkpt><trkpt lat="41.93414911573451" lon="-0.06741253577313908"><ele>396.0</ele><time>2026-03-30T14:08:22Z</time></trkpt><trkpt lat="41.93405056278591" lon="-0.06765144453224443"><ele>395.33333333333337</ele><time>2026-03-30T14:08:23Z</time></trkpt><trkpt lat="41.93394991212493" lon="-0.067891320508845"><ele>394.6666666666667</ele><time>2026-03-30T14:08:24Z</time></trkpt><trkpt lat="41.93385989644343" lon="-0.06811265966335503"><ele>394.0</ele><time>2026-03-30T14:08:25Z</time></trkpt><trkpt lat="41.93376885318786" lon="-0.06833490402998747"><ele>393.0</ele><time>2026-03-30T14:08:26Z</time></trkpt><trkpt lat="41.933682119703334" lon="-0.06854811763988493"><ele>392.0</ele><time>2026-03-30T14:08:27Z</time></trkpt><trkpt lat="41.93359959669125" lon="-0.06875180401370624"><ele>391.0</ele><time>2026-03-30T14:08:28Z</time></trkpt><trkpt lat="41.93351745025046" lon="-0.06895198584075848"><ele>390.33333333333337</ele><time>2026-03-30T14:08:29Z</time></trkpt><trkpt lat="41.933433814409014" lon="-0.06914470751938578"><ele>389.66666666666663</ele><time>2026-03-30T14:08:30Z</time></trkpt><trkpt lat="41.933355002729414" lon="-0.06933147543991801"><ele>389.0</ele><time>2026-03-30T14:08:31Z</time></trkpt><trkpt lat="41.93328151918307" lon="-0.06952114841909071"><ele>388.3333333333333</ele><time>2026-03-30T14:08:32Z</time></trkpt><trkpt lat="41.93319799468315" lon="-0.06972619765720499"><ele>387.66666666666663</ele><time>2026-03-30T14:08:33Z</time></trkpt><trkpt lat="41.933108236203346" lon="-0.06994447260499768"><ele>387.0</ele><time>2026-03-30T14:08:34Z</time></trkpt><trkpt lat="41.933014738018095" lon="-0.07017156205622191"><ele>386.66666666666663</ele><time>2026-03-30T14:08:35Z</time></trkpt><trkpt lat="41.93292192131451" lon="-0.07040051479709213"><ele>386.3333333333333</ele><time>2026-03-30T14:08:36Z</time></trkpt><trkpt lat="41.93282655304579" lon="-0.07062790312059225"><ele>386.0</ele><time>2026-03-30T14:08:37Z</time></trkpt><trkpt lat="41.93273459064528" lon="-0.0708637786504807"><ele>385.66666666666663</ele><time>2026-03-30T14:08:38Z</time></trkpt><trkpt lat="41.932639515383336" lon="-0.071095018151166"><ele>385.33333333333337</ele><time>2026-03-30T14:08:39Z</time></trkpt><trkpt lat="41.93254329258361" lon="-0.07132559855109322"><ele>385.0</ele><time>2026-03-30T14:08:40Z</time></trkpt><trkpt lat="41.93244355662414" lon="-0.07155827498440531"><ele>384.0</ele><time>2026-03-30T14:08:41Z</time></trkpt><trkpt lat="41.93235423695622" lon="-0.07178522498075164"><ele>383.0</ele><time>2026-03-30T14:08:42Z</time></trkpt><trkpt lat="41.93226031193415" lon="-0.07201513663284694"><ele>382.0</ele><time>2026-03-30T14:08:43Z</time></trkpt><trkpt lat="41.93216353332536" lon="-0.07224762537911378"><ele>381.66666666666663</ele><time>2026-03-30T14:08:44Z</time></trkpt><trkpt lat="41.93206806804847" lon="-0.07248085564680527"><ele>381.3333333333333</ele><time>2026-03-30T14:08:45Z</time></trkpt><trkpt lat="41.93197830234482" lon="-0.07271791666490283"><ele>381.0</ele><time>2026-03-30T14:08:46Z</time></trkpt><trkpt lat="41.93188857082386" lon="-0.07295663514109042"><ele>381.0</ele><time>2026-03-30T14:08:47Z</time></trkpt><trkpt lat="41.93179396851087" lon="-0.07319792928432789"><ele>381.0</ele><time>2026-03-30T14:08:48Z</time></trkpt><trkpt lat="41.93169455275424" lon="-0.0734423750229052"><ele>381.0</ele><time>2026-03-30T14:08:49Z</time></trkpt><trkpt lat="41.931592720516534" lon="-0.07368371042618728"><ele>380.3333333333333</ele><time>2026-03-30T14:08:50Z</time></trkpt><trkpt lat="41.93148856518057" lon="-0.07393332339583543"><ele>379.66666666666663</ele><time>2026-03-30T14:08:51Z</time></trkpt><trkpt lat="41.93138561583919" lon="-0.07418551095544491"><ele>379.0</ele><time>2026-03-30T14:08:52Z</time></trkpt><trkpt lat="41.93127925814737" lon="-0.07444029555575396"><ele>379.0</ele><time>2026-03-30T14:08:53Z</time></trkpt><trkpt lat="41.931176396232594" lon="-0.07469931600429916"><ele>379.0</ele><time>2026-03-30T14:08:54Z</time></trkpt><trkpt lat="41.931068380407844" lon="-0.07496152766237073"><ele>379.0</ele><time>2026-03-30T14:08:55Z</time></trkpt><trkpt lat="41.930954375275775" lon="-0.07523074705388959"><ele>376.5</ele><time>2026-03-30T14:08:56Z</time></trkpt><trkpt lat="41.9308340868067" lon="-0.07551501841477559"><ele>374.0</ele><time>2026-03-30T14:08:57Z</time></trkpt><trkpt lat="41.93071285245889" lon="-0.07581992109536913"><ele>374.0</ele><time>2026-03-30T14:08:58Z</time></trkpt><trkpt lat="41.93059101812406" lon="-0.0761219966317529"><ele>374.0</ele><time>2026-03-30T14:08:59Z</time></trkpt><trkpt lat="41.93046516992689" lon="-0.07642042518388022"><ele>373.0</ele><time>2026-03-30T14:09:00Z</time></trkpt><trkpt lat="41.93034047956607" lon="-0.07672041718145038"><ele>372.0</ele><time>2026-03-30T14:09:01Z</time></trkpt><trkpt lat="41.93021650520647" lon="-0.07702127354177467"><ele>372.0</ele><time>2026-03-30T14:09:02Z</time></trkpt><trkpt lat="41.93009398397189" lon="-0.07732142518723399"><ele>372.0</ele><time>2026-03-30T14:09:03Z</time></trkpt><trkpt lat="41.92997345986349" lon="-0.07761454511206096"><ele>371.5</ele><time>2026-03-30T14:09:04Z</time></trkpt><trkpt lat="41.929857637519625" lon="-0.07790532842047912"><ele>371.0</ele><time>2026-03-30T14:09:05Z</time></trkpt><trkpt lat="41.929738678624076" lon="-0.07819527060288835"><ele>370.5</ele><time>2026-03-30T14:09:06Z</time></trkpt><trkpt lat="41.92961907135557" lon="-0.07848844704410135"><ele>370.0</ele><time>2026-03-30T14:09:07Z</time></trkpt><trkpt lat="41.92949905357833" lon="-0.07878712915818098"><ele>370.0</ele><time>2026-03-30T14:09:08Z</time></trkpt><trkpt lat="41.92937620161255" lon="-0.07908711909902907"><ele>370.0</ele><time>2026-03-30T14:09:09Z</time></trkpt><trkpt lat="41.929251305085" lon="-0.07938969857341391"><ele>369.0</ele><time>2026-03-30T14:09:10Z</time></trkpt><trkpt lat="41.92911968812893" lon="-0.0797013611265404"><ele>368.0</ele><time>2026-03-30T14:09:11Z</time></trkpt><trkpt lat="41.928979969427665" lon="-0.08002669556086359"><ele>368.0</ele><time>2026-03-30T14:09:12Z</time></trkpt><trkpt lat="41.928841301150634" lon="-0.08036688119436174"><ele>368.0</ele><time>2026-03-30T14:09:13Z</time></trkpt><trkpt lat="41.928700559684856" lon="-0.08072006409082641"><ele>368.0</ele><time>2026-03-30T14:09:14Z</time></trkpt><trkpt lat="41.92855680522014" lon="-0.08108937108801832"><ele>368.0</ele><time>2026-03-30T14:09:15Z</time></trkpt><trkpt lat="41.92840533143966" lon="-0.08147166520208118"><ele>367.5</ele><time>2026-03-30T14:09:16Z</time></trkpt><trkpt lat="41.9282476402078" lon="-0.08185733883812156"><ele>367.0</ele><time>2026-03-30T14:09:17Z</time></trkpt><trkpt lat="41.92809641778553" lon="-0.08221518994196594"><ele>366.5</ele><time>2026-03-30T14:09:18Z</time></trkpt><trkpt lat="41.92795119207738" lon="-0.08256146677753354"><ele>366.0</ele><time>2026-03-30T14:09:19Z</time></trkpt><trkpt lat="41.92780575576579" lon="-0.08291340790938476"><ele>365.0</ele><time>2026-03-30T14:09:20Z</time></trkpt><trkpt lat="41.927658455964355" lon="-0.08326725210526485"><ele>364.0</ele><time>2026-03-30T14:09:21Z</time></trkpt><trkpt lat="41.92750575184292" lon="-0.08363121089151286"><ele>363.0</ele><time>2026-03-30T14:09:22Z</time></trkpt><trkpt lat="41.92735486421548" lon="-0.08399397450872964"><ele>362.0</ele><time>2026-03-30T14:09:23Z</time></trkpt><trkpt lat="41.92721219432736" lon="-0.08434687048098703"><ele>361.5</ele><time>2026-03-30T14:09:24Z</time></trkpt><trkpt lat="41.92707196775165" lon="-0.0846884047940888"><ele>361.0</ele><time>2026-03-30T14:09:25Z</time></trkpt><trkpt lat="41.92693608455772" lon="-0.08501513297773369"><ele>361.5</ele><time>2026-03-30T14:09:26Z</time></trkpt><trkpt lat="41.92680492074296" lon="-0.0853524688769177"><ele>362.0</ele><time>2026-03-30T14:09:27Z</time></trkpt><trkpt lat="41.92667618334231" lon="-0.08568447910467812"><ele>361.0</ele><time>2026-03-30T14:09:28Z</time></trkpt><trkpt lat="41.926543683350666" lon="-0.08600860702875503"><ele>360.0</ele><time>2026-03-30T14:09:29Z</time></trkpt><trkpt lat="41.926411152330225" lon="-0.08632996467513027"><ele>361.0</ele><time>2026-03-30T14:09:30Z</time></trkpt><trkpt lat="41.92627799549532" lon="-0.08664820547422415"><ele>362.0</ele><time>2026-03-30T14:09:31Z</time></trkpt><trkpt lat="41.92614235815889" lon="-0.08697694879703993"><ele>362.0</ele><time>2026-03-30T14:09:32Z</time></trkpt><trkpt lat="41.92600871114158" lon="-0.08729764793531358"><ele>362.0</ele><time>2026-03-30T14:09:33Z</time></trkpt><trkpt lat="41.925875647828185" lon="-0.08761820690408854"><ele>362.0</ele><time>2026-03-30T14:09:34Z</time></trkpt><trkpt lat="41.92575559467397" lon="-0.08791413118965984"><ele>362.0</ele><time>2026-03-30T14:09:35Z</time></trkpt><trkpt lat="41.925647983001056" lon="-0.08819884664911946"><ele>361.5</ele><time>2026-03-30T14:09:36Z</time></trkpt><trkpt lat="41.92553443209688" lon="-0.08847380900491326"><ele>361.0</ele><time>2026-03-30T14:09:37Z</time></trkpt><trkpt lat="41.92542157864141" lon="-0.08874106727796706"><ele>361.0</ele><time>2026-03-30T14:09:38Z</time></trkpt><trkpt lat="41.9253115926752" lon="-0.08901220293968336"><ele>361.0</ele><time>2026-03-30T14:09:39Z</time></trkpt><trkpt lat="41.925198025777405" lon="-0.08929193460924029"><ele>360.5</ele><time>2026-03-30T14:09:40Z</time></trkpt><trkpt lat="41.92507873809451" lon="-0.08957747400473179"><ele>360.0</ele><time>2026-03-30T14:09:41Z</time></trkpt><trkpt lat="41.92495793235807" lon="-0.08987156340184418"><ele>359.0</ele><time>2026-03-30T14:09:42Z</time></trkpt><trkpt lat="41.92483890091829" lon="-0.09017500844175877"><ele>358.0</ele><time>2026-03-30T14:09:43Z</time></trkpt><trkpt lat="41.924717600445476" lon="-0.09047679103359076"><ele>356.5</ele><time>2026-03-30T14:09:44Z</time></trkpt><trkpt lat="41.92458645204659" lon="-0.09078881834484423"><ele>355.0</ele><time>2026-03-30T14:09:45Z</time></trkpt><trkpt lat="41.924449835019395" lon="-0.0911089696268866"><ele>355.0</ele><time>2026-03-30T14:09:46Z</time></trkpt><trkpt lat="41.924314898299805" lon="-0.09142601443306811"><ele>355.0</ele><time>2026-03-30T14:09:47Z</time></trkpt><trkpt lat="41.92419022987544" lon="-0.09174418770513423"><ele>354.0</ele><time>2026-03-30T14:09:48Z</time></trkpt><trkpt lat="41.92407156194176" lon="-0.09205809043054226"><ele>353.0</ele><time>2026-03-30T14:09:49Z</time></trkpt><trkpt lat="41.92394413512158" lon="-0.0923594598769561"><ele>351.5</ele><time>2026-03-30T14:09:50Z</time></trkpt><trkpt lat="41.923812221252106" lon="-0.09265744942982548"><ele>350.0</ele><time>2026-03-30T14:09:51Z</time></trkpt><trkpt lat="41.92369290887684" lon="-0.09296319516400284"><ele>349.5</ele><time>2026-03-30T14:09:52Z</time></trkpt><trkpt lat="41.923577334433745" lon="-0.0932698018961962"><ele>349.0</ele><time>2026-03-30T14:09:53Z</time></trkpt><trkpt lat="41.92345241777357" lon="-0.09356552133497006"><ele>348.5</ele><time>2026-03-30T14:09:54Z</time></trkpt><trkpt lat="41.92332850019516" lon="-0.09385958523404472"><ele>348.0</ele><time>2026-03-30T14:09:55Z</time></trkpt><trkpt lat="41.923211034957674" lon="-0.09415159480228431"><ele>347.0</ele><time>2026-03-30T14:09:56Z</time></trkpt><trkpt lat="41.92309248178976" lon="-0.09444348534204189"><ele>346.0</ele><time>2026-03-30T14:09:57Z</time></trkpt><trkpt lat="41.92296885358317" lon="-0.09473910954271919"><ele>346.0</ele><time>2026-03-30T14:09:58Z</time></trkpt><trkpt lat="41.92284422779012" lon="-0.09503543051678758"><ele>346.0</ele><time>2026-03-30T14:09:59Z</time></trkpt><trkpt lat="41.922717801697836" lon="-0.09532907403602967"><ele>346.0</ele><time>2026-03-30T14:10:00Z</time></trkpt><trkpt lat="41.922606472444684" lon="-0.09560220604637458"><ele>346.0</ele><time>2026-03-30T14:10:01Z</time></trkpt><trkpt lat="41.92250968972616" lon="-0.09585675853857523"><ele>346.0</ele><time>2026-03-30T14:10:02Z</time></trkpt><trkpt lat="41.922417106673855" lon="-0.0960936516616857"><ele>345.3333333333333</ele><time>2026-03-30T14:10:03Z</time></trkpt><trkpt lat="41.92232329744055" lon="-0.0962951645886218"><ele>344.6666666666667</ele><time>2026-03-30T14:10:04Z</time></trkpt><trkpt lat="41.92223496543235" lon="-0.09648233330181744"><ele>344.0</ele><time>2026-03-30T14:10:05Z</time></trkpt><trkpt lat="41.92216495799706" lon="-0.09666977680459073"><ele>344.0</ele><time>2026-03-30T14:10:06Z</time></trkpt><trkpt lat="41.92208580840674" lon="-0.09686109255411332"><ele>344.0</ele><time>2026-03-30T14:10:07Z</time></trkpt><trkpt lat="41.92200379626503" lon="-0.09705932824830767"><ele>344.0</ele><time>2026-03-30T14:10:08Z</time></trkpt><trkpt lat="41.92191890562226" lon="-0.09726452373622693"><ele>344.6666666666667</ele><time>2026-03-30T14:10:09Z</time></trkpt><trkpt lat="41.921832098411194" lon="-0.09747435190161124"><ele>345.3333333333333</ele><time>2026-03-30T14:10:10Z</time></trkpt><trkpt lat="41.92172630009742" lon="-0.09768311394804861"><ele>346.0</ele><time>2026-03-30T14:10:11Z</time></trkpt><trkpt lat="41.921632610797495" lon="-0.0979243748608838"><ele>347.0</ele><time>2026-03-30T14:10:12Z</time></trkpt><trkpt lat="41.9215351760986" lon="-0.09818700426731934"><ele>348.0</ele><time>2026-03-30T14:10:13Z</time></trkpt><trkpt lat="41.9214345927091" lon="-0.09847609867541376"><ele>349.5</ele><time>2026-03-30T14:10:14Z</time></trkpt><trkpt lat="41.921321391861255" lon="-0.09877793038821805"><ele>351.0</ele><time>2026-03-30T14:10:15Z</time></trkpt><trkpt lat="41.921194455553874" lon="-0.09909371975086087"><ele>353.0</ele><time>2026-03-30T14:10:16Z</time></trkpt><trkpt lat="41.92106710714686" lon="-0.09938387269237206"><ele>355.0</ele><time>2026-03-30T14:10:17Z</time></trkpt><trkpt lat="41.920947793140755" lon="-0.09966482452000251"><ele>356.0</ele><time>2026-03-30T14:10:18Z</time></trkpt><trkpt lat="41.920835173630046" lon="-0.09994530752876614"><ele>357.0</ele><time>2026-03-30T14:10:19Z</time></trkpt><trkpt lat="41.920725026359634" lon="-0.10022112549475026"><ele>357.0</ele><time>2026-03-30T14:10:20Z</time></trkpt><trkpt lat="41.92061301089914" lon="-0.10048912841446282"><ele>357.0</ele><time>2026-03-30T14:10:21Z</time></trkpt><trkpt lat="41.920501915122806" lon="-0.10074866964157318"><ele>357.6666666666667</ele><time>2026-03-30T14:10:22Z</time></trkpt><trkpt lat="41.92039745020888" lon="-0.10100981518693909"><ele>358.33333333333337</ele><time>2026-03-30T14:10:23Z</time></trkpt><trkpt lat="41.920291112632974" lon="-0.10127352190121097"><ele>359.0</ele><time>2026-03-30T14:10:24Z</time></trkpt><trkpt lat="41.92017949274127" lon="-0.10155017400162648"><ele>359.5</ele><time>2026-03-30T14:10:25Z</time></trkpt><trkpt lat="41.92006985620596" lon="-0.10183346287591613"><ele>360.0</ele><time>2026-03-30T14:10:26Z</time></trkpt><trkpt lat="41.91996307019551" lon="-0.10211094637928662"><ele>360.0</ele><time>2026-03-30T14:10:27Z</time></trkpt><trkpt lat="41.91983648392354" lon="-0.10238475374931601"><ele>360.0</ele><time>2026-03-30T14:10:28Z</time></trkpt><trkpt lat="41.91972670013646" lon="-0.10266280896362483"><ele>360.0</ele><time>2026-03-30T14:10:29Z</time></trkpt><trkpt lat="41.919612548207766" lon="-0.10293891003776197"><ele>360.0</ele><time>2026-03-30T14:10:30Z</time></trkpt><trkpt lat="41.91949660225295" lon="-0.10321618859965402"><ele>360.0</ele><time>2026-03-30T14:10:31Z</time></trkpt><trkpt lat="41.91938254459461" lon="-0.10349908190910873"><ele>360.0</ele><time>2026-03-30T14:10:32Z</time></trkpt><trkpt lat="41.919274666690484" lon="-0.10377720115596854"><ele>360.0</ele><time>2026-03-30T14:10:33Z</time></trkpt><trkpt lat="41.91915908963425" lon="-0.10405261774557077"><ele>360.0</ele><time>2026-03-30T14:10:34Z</time></trkpt><trkpt lat="41.91904152036995" lon="-0.10432340469007466"><ele>360.5</ele><time>2026-03-30T14:10:35Z</time></trkpt><trkpt lat="41.91892791162615" lon="-0.10460303763585503"><ele>361.0</ele><time>2026-03-30T14:10:36Z</time></trkpt><trkpt lat="41.918817703109916" lon="-0.10487624690345257"><ele>361.0</ele><time>2026-03-30T14:10:37Z</time></trkpt><trkpt lat="41.91870645845312" lon="-0.10514537696247378"><ele>361.0</ele><time>2026-03-30T14:10:38Z</time></trkpt><trkpt lat="41.91859756978866" lon="-0.10541543674516976"><ele>361.0</ele><time>2026-03-30T14:10:39Z</time></trkpt><trkpt lat="41.91848549601297" lon="-0.1056774655042367"><ele>361.0</ele><time>2026-03-30T14:10:40Z</time></trkpt><trkpt lat="41.91837945156104" lon="-0.10592915118995978"><ele>361.0</ele><time>2026-03-30T14:10:41Z</time></trkpt><trkpt lat="41.91827803459353" lon="-0.1061773057743454"><ele>361.0</ele><time>2026-03-30T14:10:42Z</time></trkpt><trkpt lat="41.91817499455643" lon="-0.10643506146772624"><ele>361.0</ele><time>2026-03-30T14:10:43Z</time></trkpt><trkpt lat="41.918071640436274" lon="-0.10669431353919959"><ele>361.0</ele><time>2026-03-30T14:10:44Z</time></trkpt><trkpt lat="41.91795897491675" lon="-0.10695429829446686"><ele>361.0</ele><time>2026-03-30T14:10:45Z</time></trkpt><trkpt lat="41.91785079094144" lon="-0.10722101809676207"><ele>361.0</ele><time>2026-03-30T14:10:46Z</time></trkpt><trkpt lat="41.917740299713444" lon="-0.10749490480166707"><ele>360.5</ele><time>2026-03-30T14:10:47Z</time></trkpt><trkpt lat="41.91762754813117" lon="-0.10776811469024104"><ele>360.0</ele><time>2026-03-30T14:10:48Z</time></trkpt><trkpt lat="41.91751456951888" lon="-0.10804150012350063"><ele>359.0</ele><time>2026-03-30T14:10:49Z</time></trkpt><trkpt lat="41.91740115201009" lon="-0.10831664807060593"><ele>358.0</ele><time>2026-03-30T14:10:50Z</time></trkpt><trkpt lat="41.91728269857746" lon="-0.10859125130282349"><ele>358.0</ele><time>2026-03-30T14:10:51Z</time></trkpt><trkpt lat="41.91717252498616" lon="-0.10886935766501418"><ele>358.0</ele><time>2026-03-30T14:10:52Z</time></trkpt><trkpt lat="41.917060795396665" lon="-0.10914522044185056"><ele>358.5</ele><time>2026-03-30T14:10:53Z</time></trkpt><trkpt lat="41.916945855934536" lon="-0.1094245328905017"><ele>359.0</ele><time>2026-03-30T14:10:54Z</time></trkpt><trkpt lat="41.916832758728795" lon="-0.10970496325324866"><ele>359.5</ele><time>2026-03-30T14:10:55Z</time></trkpt><trkpt lat="41.916720525945735" lon="-0.10999644814769526"><ele>360.0</ele><time>2026-03-30T14:10:56Z</time></trkpt><trkpt lat="41.9165952414792" lon="-0.11029640073291089"><ele>360.0</ele><time>2026-03-30T14:10:57Z</time></trkpt><trkpt lat="41.91646432445429" lon="-0.1106048436053607"><ele>360.0</ele><time>2026-03-30T14:10:58Z</time></trkpt><trkpt lat="41.91633257562038" lon="-0.11092276923855572"><ele>360.0</ele><time>2026-03-30T14:10:59Z</time></trkpt><trkpt lat="41.91620142580115" lon="-0.11124645222607656"><ele>360.0</ele><time>2026-03-30T14:11:00Z</time></trkpt><trkpt lat="41.916070258886286" lon="-0.11156972292274732"><ele>359.5</ele><time>2026-03-30T14:11:01Z</time></trkpt><trkpt lat="41.915940833430255" lon="-0.11188069277296588"><ele>359.0</ele><time>2026-03-30T14:11:02Z</time></trkpt><trkpt lat="41.91581693711549" lon="-0.11218606652642878"><ele>359.0</ele><time>2026-03-30T14:11:03Z</time></trkpt><trkpt lat="41.91570231933939" lon="-0.11248683656251539"><ele>359.0</ele><time>2026-03-30T14:11:04Z</time></trkpt><trkpt lat="41.91558655509845" lon="-0.11277318300550279"><ele>359.0</ele><time>2026-03-30T14:11:05Z</time></trkpt><trkpt lat="41.91547144090146" lon="-0.11304806537235848"><ele>359.0</ele><time>2026-03-30T14:11:06Z</time></trkpt><trkpt lat="41.9153624742047" lon="-0.11331721551955365"><ele>359.0</ele><time>2026-03-30T14:11:07Z</time></trkpt><trkpt lat="41.91525329126601" lon="-0.11359150022047264"><ele>359.0</ele><time>2026-03-30T14:11:08Z</time></trkpt><trkpt lat="41.91513443570751" lon="-0.1138649980124966"><ele>358.5</ele><time>2026-03-30T14:11:09Z</time></trkpt><trkpt lat="41.915011467646664" lon="-0.11414186972490516"><ele>358.0</ele><time>2026-03-30T14:11:10Z</time></trkpt><trkpt lat="41.914895452438586" lon="-0.11443435058602701"><ele>358.0</ele><time>2026-03-30T14:11:11Z</time></trkpt><trkpt lat="41.91477378821142" lon="-0.11473938364221646"><ele>358.0</ele><time>2026-03-30T14:11:12Z</time></trkpt><trkpt lat="41.9146445243387" lon="-0.11504285901310615"><ele>358.0</ele><time>2026-03-30T14:11:13Z</time></trkpt><trkpt lat="41.914530498508675" lon="-0.11533455090143496"><ele>358.0</ele><time>2026-03-30T14:11:14Z</time></trkpt><trkpt lat="41.91441372087481" lon="-0.11561988997902761"><ele>358.5</ele><time>2026-03-30T14:11:15Z</time></trkpt><trkpt lat="41.9142855495813" lon="-0.11590552016309119"><ele>359.0</ele><time>2026-03-30T14:11:16Z</time></trkpt><trkpt lat="41.914172574524585" lon="-0.11619554397304585"><ele>357.5</ele><time>2026-03-30T14:11:17Z</time></trkpt><trkpt lat="41.91406531336661" lon="-0.11648684723782067"><ele>356.0</ele><time>2026-03-30T14:11:18Z</time></trkpt><trkpt lat="41.9139447290742" lon="-0.11676931283087605"><ele>355.5</ele><time>2026-03-30T14:11:19Z</time></trkpt><trkpt lat="41.913814007194375" lon="-0.11705322217209105"><ele>355.0</ele><time>2026-03-30T14:11:20Z</time></trkpt><trkpt lat="41.913700782229355" lon="-0.11734125871032527"><ele>355.5</ele><time>2026-03-30T14:11:21Z</time></trkpt><trkpt lat="41.91359617747094" lon="-0.1176254034060701"><ele>356.0</ele><time>2026-03-30T14:11:22Z</time></trkpt><trkpt lat="41.91348264535405" lon="-0.11789906200513076"><ele>354.5</ele><time>2026-03-30T14:11:23Z</time></trkpt><trkpt lat="41.91337148548666" lon="-0.11817037736186732"><ele>353.0</ele><time>2026-03-30T14:11:24Z</time></trkpt><trkpt lat="41.91326384194999" lon="-0.118442733192494"><ele>353.0</ele><time>2026-03-30T14:11:25Z</time></trkpt><trkpt lat="41.91315191632926" lon="-0.1187065243616989"><ele>353.0</ele><time>2026-03-30T14:11:26Z</time></trkpt><trkpt lat="41.913042255461036" lon="-0.11896732984305183"><ele>353.0</ele><time>2026-03-30T14:11:27Z</time></trkpt><trkpt lat="41.91294027227849" lon="-0.11922235782497044"><ele>352.6666666666667</ele><time>2026-03-30T14:11:28Z</time></trkpt><trkpt lat="41.91284011620828" lon="-0.11947124013999001"><ele>352.3333333333333</ele><time>2026-03-30T14:11:29Z</time></trkpt><trkpt lat="41.912740739763734" lon="-0.11971721303896275"><ele>352.0</ele><time>2026-03-30T14:11:30Z</time></trkpt><trkpt lat="41.91264665383088" lon="-0.11995296466997182"><ele>350.3333333333333</ele><time>2026-03-30T14:11:31Z</time></trkpt><trkpt lat="41.9125560966181" lon="-0.12018639094681678"><ele>348.6666666666667</ele><time>2026-03-30T14:11:32Z</time></trkpt><trkpt lat="41.91246510668061" lon="-0.12041149834614484"><ele>347.0</ele><time>2026-03-30T14:11:33Z</time></trkpt><trkpt lat="41.912372288050335" lon="-0.12060723360197095"><ele>346.33333333333337</ele><time>2026-03-30T14:11:34Z</time></trkpt><trkpt lat="41.91227606353986" lon="-0.12078423572963637"><ele>345.6666666666667</ele><time>2026-03-30T14:11:35Z</time></trkpt><trkpt lat="41.91216649858611" lon="-0.12092813325991374"><ele>345.0</ele><time>2026-03-30T14:11:36Z</time></trkpt><trkpt lat="41.9120230115657" lon="-0.12103383101572626"><ele>345.0</ele><time>2026-03-30T14:11:37Z</time></trkpt><trkpt lat="41.91186104260611" lon="-0.12107938859115201"><ele>345.0</ele><time>2026-03-30T14:11:38Z</time></trkpt><trkpt lat="41.911701277585315" lon="-0.12104686072679906"><ele>345.0</ele><time>2026-03-30T14:11:39Z</time></trkpt><trkpt lat="41.91156625913161" lon="-0.12096182749995253"><ele>345.25</ele><time>2026-03-30T14:11:40Z</time></trkpt><trkpt lat="41.9114772502261" lon="-0.12080049037260204"><ele>345.5</ele><time>2026-03-30T14:11:41Z</time></trkpt><trkpt lat="41.91142850856235" lon="-0.12061390993280283"><ele>345.75</ele><time>2026-03-30T14:11:42Z</time></trkpt><trkpt lat="41.911345179254376" lon="-0.1204994459870959"><ele>346.0</ele><time>2026-03-30T14:11:43Z</time></trkpt><trkpt lat="41.9112363079426" lon="-0.12045724172864532"><ele>346.0</ele><time>2026-03-30T14:11:44Z</time></trkpt><trkpt lat="41.911119152884424" lon="-0.12045266694532476"><ele>346.0</ele><time>2026-03-30T14:11:45Z</time></trkpt><trkpt lat="41.91102868961553" lon="-0.1205499317506319"><ele>346.0</ele><time>2026-03-30T14:11:46Z</time></trkpt><trkpt lat="41.91098181667759" lon="-0.12069495643944181"><ele>346.0</ele><time>2026-03-30T14:11:47Z</time></trkpt><trkpt lat="41.910972378070745" lon="-0.12087971477594799"><ele>345.0</ele><time>2026-03-30T14:11:48Z</time></trkpt><trkpt lat="41.91099025518136" lon="-0.12107157336109617"><ele>344.0</ele><time>2026-03-30T14:11:49Z</time></trkpt><trkpt lat="41.9110534269815" lon="-0.12124151685167422"><ele>343.0</ele><time>2026-03-30T14:11:50Z</time></trkpt><trkpt lat="41.91115896655355" lon="-0.12140368796127769"><ele>342.0</ele><time>2026-03-30T14:11:51Z</time></trkpt><trkpt lat="41.911283972152305" lon="-0.12157067782999213"><ele>340.3333333333333</ele><time>2026-03-30T14:11:52Z</time></trkpt><trkpt lat="41.91141465631146" lon="-0.12172609206056402"><ele>338.66666666666663</ele><time>2026-03-30T14:11:53Z</time></trkpt><trkpt lat="41.91151919861754" lon="-0.12188573649156097"><ele>337.0</ele><time>2026-03-30T14:11:54Z</time></trkpt><trkpt lat="41.91161398234487" lon="-0.1220438762220317"><ele>337.0</ele><time>2026-03-30T14:11:55Z</time></trkpt><trkpt lat="41.91170705348088" lon="-0.1221968833347279"><ele>337.0</ele><time>2026-03-30T14:11:56Z</time></trkpt><trkpt lat="41.911800307652314" lon="-0.12235000412514782"><ele>337.0</ele><time>2026-03-30T14:11:57Z</time></trkpt><trkpt lat="41.91189370781775" lon="-0.12249952493200518"><ele>337.0</ele><time>2026-03-30T14:11:58Z</time></trkpt><trkpt lat="41.911997024049406" lon="-0.12263898482486846"><ele>335.0</ele><time>2026-03-30T14:11:59Z</time></trkpt><trkpt lat="41.91210556953478" lon="-0.12276116510457996"><ele>333.0</ele><time>2026-03-30T14:12:00Z</time></trkpt><trkpt lat="41.91222444852647" lon="-0.12287682853546843"><ele>331.0</ele><time>2026-03-30T14:12:01Z</time></trkpt><trkpt lat="41.912354230200854" lon="-0.12302905376481225"><ele>331.0</ele><time>2026-03-30T14:12:02Z</time></trkpt><trkpt lat="41.91247622911512" lon="-0.12321164990166708"><ele>331.0</ele><time>2026-03-30T14:12:03Z</time></trkpt><trkpt lat="41.91256301699983" lon="-0.12340888193766657"><ele>331.0</ele><time>2026-03-30T14:12:04Z</time></trkpt><trkpt lat="41.912616171128846" lon="-0.12361750735490536"><ele>328.0</ele><time>2026-03-30T14:12:05Z</time></trkpt><trkpt lat="41.912645203494044" lon="-0.12386339224939807"><ele>325.0</ele><time>2026-03-30T14:12:06Z</time></trkpt><trkpt lat="41.91265599176556" lon="-0.12414140651060497"><ele>322.0</ele><time>2026-03-30T14:12:07Z</time></trkpt><trkpt lat="41.91264580630085" lon="-0.1244176688500217"><ele>321.0</ele><time>2026-03-30T14:12:08Z</time></trkpt><trkpt lat="41.91264267809175" lon="-0.12466150174612615"><ele>320.0</ele><time>2026-03-30T14:12:09Z</time></trkpt><trkpt lat="41.91264013709863" lon="-0.12487151486588426"><ele>319.0</ele><time>2026-03-30T14:12:10Z</time></trkpt><trkpt lat="41.912636307573614" lon="-0.12505653028530855"><ele>318.59999999999997</ele><time>2026-03-30T14:12:11Z</time></trkpt><trkpt lat="41.912632986918204" lon="-0.12522557511557728"><ele>318.2</ele><time>2026-03-30T14:12:12Z</time></trkpt><trkpt lat="41.9126298929864" lon="-0.12537644601349704"><ele>317.79999999999995</ele><time>2026-03-30T14:12:13Z</time></trkpt><trkpt lat="41.91263039918713" lon="-0.12551221525589093"><ele>317.4</ele><time>2026-03-30T14:12:14Z</time></trkpt><trkpt lat="41.91263171470334" lon="-0.1256402913865879"><ele>317.0</ele><time>2026-03-30T14:12:15Z</time></trkpt><trkpt lat="41.91262630821348" lon="-0.12576544702305348"><ele>317.0</ele><time>2026-03-30T14:12:16Z</time></trkpt><trkpt lat="41.91258264777141" lon="-0.12588059335182875"><ele>317.0</ele><time>2026-03-30T14:12:17Z</time></trkpt><trkpt lat="41.91249210098994" lon="-0.12595937199379806"><ele>317.0</ele><time>2026-03-30T14:12:18Z</time></trkpt><trkpt lat="41.9123634971396" lon="-0.12597914588109882"><ele>317.0</ele><time>2026-03-30T14:12:19Z</time></trkpt><trkpt lat="41.912229333979475" lon="-0.12594513062926044"><ele>317.33333333333337</ele><time>2026-03-30T14:12:20Z</time></trkpt><trkpt lat="41.912086608872535" lon="-0.12585112017509462"><ele>317.6666666666667</ele><time>2026-03-30T14:12:21Z</time></trkpt><trkpt lat="41.91194814578406" lon="-0.1257311096336807"><ele>318.0</ele><time>2026-03-30T14:12:22Z</time></trkpt><trkpt lat="41.91183290256091" lon="-0.12562695945243119"><ele>317.6666666666667</ele><time>2026-03-30T14:12:23Z</time></trkpt><trkpt lat="41.91169465970746" lon="-0.12556788170188063"><ele>317.33333333333337</ele><time>2026-03-30T14:12:24Z</time></trkpt><trkpt lat="41.91153225949936" lon="-0.12552341843232662"><ele>317.0</ele><time>2026-03-30T14:12:25Z</time></trkpt><trkpt lat="41.91133749774948" lon="-0.12547797864169266"><ele>317.0</ele><time>2026-03-30T14:12:26Z</time></trkpt><trkpt lat="41.91112346927828" lon="-0.1254590128925939"><ele>317.0</ele><time>2026-03-30T14:12:27Z</time></trkpt><trkpt lat="41.910887019674796" lon="-0.12542937284833064"><ele>318.33333333333337</ele><time>2026-03-30T14:12:28Z</time></trkpt><trkpt lat="41.91067953944288" lon="-0.12539171848439198"><ele>319.6666666666667</ele><time>2026-03-30T14:12:29Z</time></trkpt><trkpt lat="41.910488392133416" lon="-0.12535435615651933"><ele>321.0</ele><time>2026-03-30T14:12:30Z</time></trkpt><trkpt lat="41.910308910469496" lon="-0.12532656115936947"><ele>321.0</ele><time>2026-03-30T14:12:31Z</time></trkpt><trkpt lat="41.910136624780236" lon="-0.12530302816139155"><ele>321.0</ele><time>2026-03-30T14:12:32Z</time></trkpt><trkpt lat="41.90996053416627" lon="-0.12527638035002317"><ele>321.0</ele><time>2026-03-30T14:12:33Z</time></trkpt><trkpt lat="41.909788773199814" lon="-0.12526025891202597"><ele>321.6666666666667</ele><time>2026-03-30T14:12:34Z</time></trkpt><trkpt lat="41.90963402840869" lon="-0.1253032997193256"><ele>322.33333333333337</ele><time>2026-03-30T14:12:35Z</time></trkpt><trkpt lat="41.9094698759602" lon="-0.12533478997135877"><ele>323.0</ele><time>2026-03-30T14:12:36Z</time></trkpt><trkpt lat="41.90930575782406" lon="-0.12541105389325344"><ele>322.33333333333337</ele><time>2026-03-30T14:12:37Z</time></trkpt><trkpt lat="41.909138949739514" lon="-0.1254823656290871"><ele>321.6666666666667</ele><time>2026-03-30T14:12:38Z</time></trkpt><trkpt lat="41.90898391855776" lon="-0.1255252729586558"><ele>321.0</ele><time>2026-03-30T14:12:39Z</time></trkpt><trkpt lat="41.90883203369392" lon="-0.12557632769388874"><ele>321.0</ele><time>2026-03-30T14:12:40Z</time></trkpt><trkpt lat="41.90868315317225" lon="-0.125640102072089"><ele>321.0</ele><time>2026-03-30T14:12:41Z</time></trkpt><trkpt lat="41.90854458337108" lon="-0.12568771702717016"><ele>321.0</ele><time>2026-03-30T14:12:42Z</time></trkpt><trkpt lat="41.90841119024538" lon="-0.1257386881465986"><ele>321.0</ele><time>2026-03-30T14:12:43Z</time></trkpt><trkpt lat="41.9083099095649" lon="-0.12585519478652124"><ele>320.0</ele><time>2026-03-30T14:12:44Z</time></trkpt><trkpt lat="41.908228906392594" lon="-0.12596667310409346"><ele>319.0</ele><time>2026-03-30T14:12:45Z</time></trkpt><trkpt lat="41.908172096706984" lon="-0.12609363015212932"><ele>318.0</ele><time>2026-03-30T14:12:46Z</time></trkpt><trkpt lat="41.90811793146384" lon="-0.12620834163344843"><ele>317.0</ele><time>2026-03-30T14:12:47Z</time></trkpt><trkpt lat="41.908059345282894" lon="-0.12631399659155998"><ele>316.0</ele><time>2026-03-30T14:12:48Z</time></trkpt><trkpt lat="41.9079957964381" lon="-0.12641701989615434"><ele>316.0</ele><time>2026-03-30T14:12:49Z</time></trkpt><trkpt lat="41.907928362570445" lon="-0.1265381088600812"><ele>316.0</ele><time>2026-03-30T14:12:50Z</time></trkpt><trkpt lat="41.907859631375395" lon="-0.12667838626976052"><ele>316.0</ele><time>2026-03-30T14:12:51Z</time></trkpt><trkpt lat="41.90778639036807" lon="-0.12682518089658995"><ele>316.0</ele><time>2026-03-30T14:12:52Z</time></trkpt><trkpt lat="41.90772680271398" lon="-0.12698293691404489"><ele>316.25</ele><time>2026-03-30T14:12:53Z</time></trkpt><trkpt lat="41.90768604282247" lon="-0.12716013356933503"><ele>316.5</ele><time>2026-03-30T14:12:54Z</time></trkpt><trkpt lat="41.90765974874217" lon="-0.12734500200190813"><ele>316.75</ele><time>2026-03-30T14:12:55Z</time></trkpt><trkpt lat="41.90765841054164" lon="-0.1275366418704279"><ele>317.0</ele><time>2026-03-30T14:12:56Z</time></trkpt><trkpt lat="41.90767311834828" lon="-0.1277275555737071"><ele>317.25</ele><time>2026-03-30T14:12:57Z</time></trkpt><trkpt lat="41.90770590507819" lon="-0.12791623349778494"><ele>317.5</ele><time>2026-03-30T14:12:58Z</time></trkpt><trkpt lat="41.90774613448126" lon="-0.12810214197692904"><ele>317.75</ele><time>2026-03-30T14:12:59Z</time></trkpt><trkpt lat="41.907787852486315" lon="-0.12828777237630004"><ele>318.0</ele><time>2026-03-30T14:13:00Z</time></trkpt><trkpt lat="41.907820083634604" lon="-0.12848217533282563"><ele>319.0</ele><time>2026-03-30T14:13:01Z</time></trkpt><trkpt lat="41.90785429402077" lon="-0.12868154640305005"><ele>320.0</ele><time>2026-03-30T14:13:02Z</time></trkpt><trkpt lat="41.90788886559221" lon="-0.1288792697723857"><ele>321.0</ele><time>2026-03-30T14:13:03Z</time></trkpt><trkpt lat="41.907918050687634" lon="-0.12906006753277202"><ele>322.0</ele><time>2026-03-30T14:13:04Z</time></trkpt><trkpt lat="41.90794446143421" lon="-0.1292299567267318"><ele>323.75</ele><time>2026-03-30T14:13:05Z</time></trkpt><trkpt lat="41.90796959508414" lon="-0.1293992366828904"><ele>325.5</ele><time>2026-03-30T14:13:06Z</time></trkpt><trkpt lat="41.90798939535573" lon="-0.1295682617088118"><ele>327.25</ele><time>2026-03-30T14:13:07Z</time></trkpt><trkpt lat="41.907980510015676" lon="-0.12973891292046943"><ele>329.0</ele><time>2026-03-30T14:13:08Z</time></trkpt><trkpt lat="41.90793814861364" lon="-0.12993103274330176"><ele>330.6666666666667</ele><time>2026-03-30T14:13:09Z</time></trkpt><trkpt lat="41.90787816118635" lon="-0.130120791036141"><ele>332.3333333333333</ele><time>2026-03-30T14:13:10Z</time></trkpt><trkpt lat="41.907826265562946" lon="-0.1303167322655094"><ele>334.0</ele><time>2026-03-30T14:13:11Z</time></trkpt><trkpt lat="41.90778015732464" lon="-0.13052306604595992"><ele>333.66666666666663</ele><time>2026-03-30T14:13:12Z</time></trkpt><trkpt lat="41.907744829765285" lon="-0.1307372566149233"><ele>333.3333333333333</ele><time>2026-03-30T14:13:13Z</time></trkpt><trkpt lat="41.907708648661945" lon="-0.13095256813977982"><ele>333.0</ele><time>2026-03-30T14:13:14Z</time></trkpt><trkpt lat="41.90766939936855" lon="-0.1311749546884912"><ele>333.0</ele><time>2026-03-30T14:13:15Z</time></trkpt><trkpt lat="41.90763125901281" lon="-0.13140906490962867"><ele>333.0</ele><time>2026-03-30T14:13:16Z</time></trkpt><trkpt lat="41.90759494915127" lon="-0.131651567178396"><ele>333.0</ele><time>2026-03-30T14:13:17Z</time></trkpt><trkpt lat="41.907558450054665" lon="-0.13187979680352988"><ele>335.0</ele><time>2026-03-30T14:13:18Z</time></trkpt><trkpt lat="41.90752112451496" lon="-0.13210852072493945"><ele>337.0</ele><time>2026-03-30T14:13:19Z</time></trkpt><trkpt lat="41.907490212422516" lon="-0.13232746526915787"><ele>339.0</ele><time>2026-03-30T14:13:20Z</time></trkpt><trkpt lat="41.90745170618586" lon="-0.13254545749149116"><ele>339.3333333333333</ele><time>2026-03-30T14:13:21Z</time></trkpt><trkpt lat="41.90741466292782" lon="-0.1327556853603089"><ele>339.66666666666663</ele><time>2026-03-30T14:13:22Z</time></trkpt><trkpt lat="41.90737992785501" lon="-0.13296807331674826"><ele>340.0</ele><time>2026-03-30T14:13:23Z</time></trkpt><trkpt lat="41.90734399050147" lon="-0.13318776219904044"><ele>341.0</ele><time>2026-03-30T14:13:24Z</time></trkpt><trkpt lat="41.90731220918239" lon="-0.13341436552577915"><ele>342.0</ele><time>2026-03-30T14:13:25Z</time></trkpt><trkpt lat="41.907271703322785" lon="-0.13364819938861044"><ele>343.0</ele><time>2026-03-30T14:13:26Z</time></trkpt><trkpt lat="41.90722586624886" lon="-0.13391462181470543"><ele>343.0</ele><time>2026-03-30T14:13:27Z</time></trkpt><trkpt lat="41.907185840027296" lon="-0.13418676877101182"><ele>343.0</ele><time>2026-03-30T14:13:28Z</time></trkpt><trkpt lat="41.907137191218155" lon="-0.1344637129565067"><ele>343.0</ele><time>2026-03-30T14:13:29Z</time></trkpt><trkpt lat="41.90708898891342" lon="-0.13474552947515692"><ele>342.0</ele><time>2026-03-30T14:13:30Z</time></trkpt><trkpt lat="41.90703872611966" lon="-0.1350334274907466"><ele>341.0</ele><time>2026-03-30T14:13:31Z</time></trkpt><trkpt lat="41.90698332123224" lon="-0.13533451182311046"><ele>341.0</ele><time>2026-03-30T14:13:32Z</time></trkpt><trkpt lat="41.90692822381369" lon="-0.1356431928872767"><ele>341.0</ele><time>2026-03-30T14:13:33Z</time></trkpt><trkpt lat="41.90687224921172" lon="-0.13595697375747176"><ele>340.5</ele><time>2026-03-30T14:13:34Z</time></trkpt><trkpt lat="41.90682026887097" lon="-0.1362714662659239"><ele>340.0</ele><time>2026-03-30T14:13:35Z</time></trkpt><trkpt lat="41.90676863866412" lon="-0.13660646511037902"><ele>340.5</ele><time>2026-03-30T14:13:36Z</time></trkpt><trkpt lat="41.90671124805663" lon="-0.13692966646219537"><ele>341.0</ele><time>2026-03-30T14:13:37Z</time></trkpt><trkpt lat="41.906658143978255" lon="-0.13725878929402627"><ele>340.5</ele><time>2026-03-30T14:13:38Z</time></trkpt><trkpt lat="41.90660602192235" lon="-0.1375875348101045"><ele>340.0</ele><time>2026-03-30T14:13:39Z</time></trkpt><trkpt lat="41.90655193052093" lon="-0.13793446517948346"><ele>340.0</ele><time>2026-03-30T14:13:40Z</time></trkpt><trkpt lat="41.906492638061" lon="-0.13830034052319262"><ele>340.0</ele><time>2026-03-30T14:13:41Z</time></trkpt><trkpt lat="41.906430989020265" lon="-0.13867671105159035"><ele>340.5</ele><time>2026-03-30T14:13:42Z</time></trkpt><trkpt lat="41.906381715919444" lon="-0.13907674482686677"><ele>341.0</ele><time>2026-03-30T14:13:43Z</time></trkpt><trkpt lat="41.906316767484356" lon="-0.13947915356732232"><ele>341.0</ele><time>2026-03-30T14:13:44Z</time></trkpt><trkpt lat="41.90624136545086" lon="-0.13986876774715337"><ele>341.0</ele><time>2026-03-30T14:13:45Z</time></trkpt><trkpt lat="41.90618923333817" lon="-0.14021537093817418"><ele>342.0</ele><time>2026-03-30T14:13:46Z</time></trkpt><trkpt lat="41.90613731001924" lon="-0.14057787261546373"><ele>343.0</ele><time>2026-03-30T14:13:47Z</time></trkpt><trkpt lat="41.90608708144583" lon="-0.14093472605835988"><ele>344.0</ele><time>2026-03-30T14:13:48Z</time></trkpt><trkpt lat="41.9060357278644" lon="-0.14128254175521596"><ele>345.0</ele><time>2026-03-30T14:13:49Z</time></trkpt><trkpt lat="41.90598198840574" lon="-0.14162320062153413"><ele>346.5</ele><time>2026-03-30T14:13:50Z</time></trkpt><trkpt lat="41.905926240564305" lon="-0.1419648016623755"><ele>348.0</ele><time>2026-03-30T14:13:51Z</time></trkpt><trkpt lat="41.90587652733959" lon="-0.1422767287903983"><ele>351.5</ele><time>2026-03-30T14:13:52Z</time></trkpt><trkpt lat="41.9058233857635" lon="-0.1425832779448192"><ele>355.0</ele><time>2026-03-30T14:13:53Z</time></trkpt><trkpt lat="41.90577190805684" lon="-0.14288105870463008"><ele>355.0</ele><time>2026-03-30T14:13:54Z</time></trkpt><trkpt lat="41.90572472834759" lon="-0.143180685635195"><ele>355.0</ele><time>2026-03-30T14:13:55Z</time></trkpt><trkpt lat="41.905681434789656" lon="-0.14348233510797612"><ele>355.0</ele><time>2026-03-30T14:13:56Z</time></trkpt><trkpt lat="41.90562976503448" lon="-0.14378048303662996"><ele>355.0</ele><time>2026-03-30T14:13:57Z</time></trkpt><trkpt lat="41.905580098438136" lon="-0.14408791741563773"><ele>354.5</ele><time>2026-03-30T14:13:58Z</time></trkpt><trkpt lat="41.90552762825985" lon="-0.1444083695411177"><ele>354.0</ele><time>2026-03-30T14:13:59Z</time></trkpt><trkpt lat="41.905475238331114" lon="-0.14474290770686365"><ele>354.5</ele><time>2026-03-30T14:14:00Z</time></trkpt><trkpt lat="41.90541578807833" lon="-0.14508940562638944"><ele>355.0</ele><time>2026-03-30T14:14:01Z</time></trkpt><trkpt lat="41.9053574499742" lon="-0.1454473222445969"><ele>356.0</ele><time>2026-03-30T14:14:02Z</time></trkpt><trkpt lat="41.90530150629253" lon="-0.14580838934785054"><ele>357.0</ele><time>2026-03-30T14:14:03Z</time></trkpt><trkpt lat="41.90524603247155" lon="-0.1461711561573388"><ele>357.0</ele><time>2026-03-30T14:14:04Z</time></trkpt><trkpt lat="41.90518800303665" lon="-0.146533913621394"><ele>357.0</ele><time>2026-03-30T14:14:05Z</time></trkpt><trkpt lat="41.90512681430099" lon="-0.1468977300289997"><ele>354.5</ele><time>2026-03-30T14:14:06Z</time></trkpt><trkpt lat="41.90506532780134" lon="-0.14725733429494525"><ele>352.0</ele><time>2026-03-30T14:14:07Z</time></trkpt><trkpt lat="41.905008786916966" lon="-0.1476271192474405"><ele>352.0</ele><time>2026-03-30T14:14:08Z</time></trkpt><trkpt lat="41.904952624241204" lon="-0.14800856814157687"><ele>352.0</ele><time>2026-03-30T14:14:09Z</time></trkpt><trkpt lat="41.90489419611913" lon="-0.14838886647374067"><ele>352.0</ele><time>2026-03-30T14:14:10Z</time></trkpt><trkpt lat="41.90483179338366" lon="-0.14876441267291457"><ele>352.0</ele><time>2026-03-30T14:14:11Z</time></trkpt><trkpt lat="41.90477136836095" lon="-0.1491363477836045"><ele>351.5</ele><time>2026-03-30T14:14:12Z</time></trkpt><trkpt lat="41.904713307515806" lon="-0.14950089279097084"><ele>351.0</ele><time>2026-03-30T14:14:13Z</time></trkpt><trkpt lat="41.9046528480964" lon="-0.14985921385663115"><ele>351.5</ele><time>2026-03-30T14:14:14Z</time></trkpt><trkpt lat="41.90459788319292" lon="-0.15020836908883575"><ele>352.0</ele><time>2026-03-30T14:14:15Z</time></trkpt><trkpt lat="41.904541785623" lon="-0.15056116428822072"><ele>352.5</ele><time>2026-03-30T14:14:16Z</time></trkpt><trkpt lat="41.90448490749651" lon="-0.15090465359245164"><ele>353.0</ele><time>2026-03-30T14:14:17Z</time></trkpt><trkpt lat="41.90442808704317" lon="-0.15124919904854744"><ele>352.0</ele><time>2026-03-30T14:14:18Z</time></trkpt><trkpt lat="41.90437436874052" lon="-0.1515899528421093"><ele>351.0</ele><time>2026-03-30T14:14:19Z</time></trkpt><trkpt lat="41.90431644271036" lon="-0.15193145829184043"><ele>351.0</ele><time>2026-03-30T14:14:20Z</time></trkpt><trkpt lat="41.90425890146785" lon="-0.1522715070560502"><ele>351.0</ele><time>2026-03-30T14:14:21Z</time></trkpt><trkpt lat="41.90420164645917" lon="-0.15260787409243767"><ele>352.5</ele><time>2026-03-30T14:14:22Z</time></trkpt><trkpt lat="41.90414677904485" lon="-0.15294600233547806"><ele>354.0</ele><time>2026-03-30T14:14:23Z</time></trkpt><trkpt lat="41.90409377332855" lon="-0.15329216096102702"><ele>354.5</ele><time>2026-03-30T14:14:24Z</time></trkpt><trkpt lat="41.90403785714329" lon="-0.1536388649106805"><ele>355.0</ele><time>2026-03-30T14:14:25Z</time></trkpt><trkpt lat="41.903981583396934" lon="-0.15398700159546075"><ele>356.0</ele><time>2026-03-30T14:14:26Z</time></trkpt><trkpt lat="41.90392850674965" lon="-0.15433531148207455"><ele>357.0</ele><time>2026-03-30T14:14:27Z</time></trkpt><trkpt lat="41.903872616005884" lon="-0.15468936181719398"><ele>357.0</ele><time>2026-03-30T14:14:28Z</time></trkpt><trkpt lat="41.90381528974499" lon="-0.15504272177385878"><ele>357.0</ele><time>2026-03-30T14:14:29Z</time></trkpt><trkpt lat="41.90376089615486" lon="-0.15539331413531365"><ele>356.5</ele><time>2026-03-30T14:14:30Z</time></trkpt><trkpt lat="41.90370546357418" lon="-0.1557420105411416"><ele>356.0</ele><time>2026-03-30T14:14:31Z</time></trkpt><trkpt lat="41.903647969438886" lon="-0.15608966531575239"><ele>356.0</ele><time>2026-03-30T14:14:32Z</time></trkpt><trkpt lat="41.903590022741845" lon="-0.15643460322576638"><ele>356.0</ele><time>2026-03-30T14:14:33Z</time></trkpt><trkpt lat="41.90353474967878" lon="-0.1567793049798557"><ele>356.5</ele><time>2026-03-30T14:14:34Z</time></trkpt><trkpt lat="41.90348310769562" lon="-0.15711276481844663"><ele>357.0</ele><time>2026-03-30T14:14:35Z</time></trkpt><trkpt lat="41.90343525703306" lon="-0.1574404901863689"><ele>359.5</ele><time>2026-03-30T14:14:36Z</time></trkpt><trkpt lat="41.9033847819723" lon="-0.1577520565504622"><ele>362.0</ele><time>2026-03-30T14:14:37Z</time></trkpt><trkpt lat="41.90333038351423" lon="-0.15805645944739785"><ele>360.0</ele><time>2026-03-30T14:14:38Z</time></trkpt><trkpt lat="41.90327923762358" lon="-0.15836975811806464"><ele>358.0</ele><time>2026-03-30T14:14:39Z</time></trkpt><trkpt lat="41.90322806816093" lon="-0.15867906196739667"><ele>358.0</ele><time>2026-03-30T14:14:40Z</time></trkpt><trkpt lat="41.903178806825025" lon="-0.1589768979776151"><ele>358.0</ele><time>2026-03-30T14:14:41Z</time></trkpt><trkpt lat="41.903130212069726" lon="-0.159265779082072"><ele>358.0</ele><time>2026-03-30T14:14:42Z</time></trkpt><trkpt lat="41.9030832847267" lon="-0.15954759062804505"><ele>357.66666666666663</ele><time>2026-03-30T14:14:43Z</time></trkpt><trkpt lat="41.9030417595273" lon="-0.15982012824718342"><ele>357.3333333333333</ele><time>2026-03-30T14:14:44Z</time></trkpt><trkpt lat="41.90300563832772" lon="-0.16005273079594476"><ele>357.0</ele><time>2026-03-30T14:14:45Z</time></trkpt><trkpt lat="41.90297043030873" lon="-0.16025464135533524"><ele>356.0</ele><time>2026-03-30T14:14:46Z</time></trkpt><trkpt lat="41.90293469609758" lon="-0.16044277222871065"><ele>355.0</ele><time>2026-03-30T14:14:47Z</time></trkpt><trkpt lat="41.90289980580586" lon="-0.16062518271552698"><ele>354.0</ele><time>2026-03-30T14:14:48Z</time></trkpt><trkpt lat="41.90286626839428" lon="-0.16080582494276222"><ele>353.0</ele><time>2026-03-30T14:14:49Z</time></trkpt><trkpt lat="41.902837585982645" lon="-0.16099631147208487"><ele>352.5</ele><time>2026-03-30T14:14:50Z</time></trkpt><trkpt lat="41.902812177828935" lon="-0.16117761354777801"><ele>352.0</ele><time>2026-03-30T14:14:51Z</time></trkpt><trkpt lat="41.9027875202581" lon="-0.16134091737086112"><ele>351.5</ele><time>2026-03-30T14:14:52Z</time></trkpt><trkpt lat="41.90276624850729" lon="-0.16148352162922702"><ele>351.0</ele><time>2026-03-30T14:14:53Z</time></trkpt><trkpt lat="41.90274763689824" lon="-0.16161695390714764"><ele>350.6</ele><time>2026-03-30T14:14:54Z</time></trkpt><trkpt lat="41.90272513562959" lon="-0.16174298594436445"><ele>350.20000000000005</ele><time>2026-03-30T14:14:55Z</time></trkpt><trkpt lat="41.90270992590242" lon="-0.16185720475979423"><ele>349.79999999999995</ele><time>2026-03-30T14:14:56Z</time></trkpt><trkpt lat="41.902697315344746" lon="-0.16197194819292177"><ele>349.4</ele><time>2026-03-30T14:14:57Z</time></trkpt><trkpt lat="41.90268203027096" lon="-0.16209229731636296"><ele>349.0</ele><time>2026-03-30T14:14:58Z</time></trkpt><trkpt lat="41.902677286473335" lon="-0.16222786699701452"><ele>349.0</ele><time>2026-03-30T14:14:59Z</time></trkpt><trkpt lat="41.902700632886756" lon="-0.16236138598099442"><ele>349.0</ele><time>2026-03-30T14:15:00Z</time></trkpt><trkpt lat="41.90273604602517" lon="-0.1624703709427917"><ele>349.0</ele><time>2026-03-30T14:15:01Z</time></trkpt><trkpt lat="41.90275791285696" lon="-0.16255604581948466"><ele>349.0</ele><time>2026-03-30T14:15:02Z</time></trkpt><trkpt lat="41.90274197097258" lon="-0.16270910907388905"><ele>349.0</ele><time>2026-03-30T14:15:04Z</time></trkpt><trkpt lat="41.902711663813946" lon="-0.1628591314753344"><ele>349.0</ele><time>2026-03-30T14:15:05Z</time></trkpt><trkpt lat="41.90261299625584" lon="-0.16304086239376225"><ele>349.0</ele><time>2026-03-30T14:15:06Z</time></trkpt><trkpt lat="41.90251729575786" lon="-0.16330068539016004"><ele>349.0</ele><time>2026-03-30T14:15:07Z</time></trkpt><trkpt lat="41.902391950533776" lon="-0.1635689464132559"><ele>349.0</ele><time>2026-03-30T14:15:08Z</time></trkpt><trkpt lat="41.90234584760295" lon="-0.1639078978275494"><ele>349.0</ele><time>2026-03-30T14:15:09Z</time></trkpt><trkpt lat="41.902301229484515" lon="-0.16427791220590698"><ele>348.5</ele><time>2026-03-30T14:15:10Z</time></trkpt><trkpt lat="41.90226642629783" lon="-0.16467499618932896"><ele>348.0</ele><time>2026-03-30T14:15:11Z</time></trkpt><trkpt lat="41.90224243555298" lon="-0.16507422300040642"><ele>348.0</ele><time>2026-03-30T14:15:12Z</time></trkpt><trkpt lat="41.90222818996176" lon="-0.16548298175749226"><ele>348.0</ele><time>2026-03-30T14:15:13Z</time></trkpt><trkpt lat="41.902227337742374" lon="-0.16592140643108616"><ele>348.0</ele><time>2026-03-30T14:15:14Z</time></trkpt><trkpt lat="41.90222462327513" lon="-0.1663008341605292"><ele>348.0</ele><time>2026-03-30T14:15:15Z</time></trkpt><trkpt lat="41.902213908546216" lon="-0.16666032758029772"><ele>349.0</ele><time>2026-03-30T14:15:16Z</time></trkpt><trkpt lat="41.90220026129115" lon="-0.16701130370825162"><ele>350.0</ele><time>2026-03-30T14:15:17Z</time></trkpt><trkpt lat="41.90218889534842" lon="-0.16734896905182323"><ele>351.0</ele><time>2026-03-30T14:15:18Z</time></trkpt><trkpt lat="41.902187666127354" lon="-0.1676767192322086"><ele>352.0</ele><time>2026-03-30T14:15:19Z</time></trkpt><trkpt lat="41.902187253935445" lon="-0.16799768542633456"><ele>354.5</ele><time>2026-03-30T14:15:20Z</time></trkpt><trkpt lat="41.902179272813655" lon="-0.16830932169456486"><ele>357.0</ele><time>2026-03-30T14:15:21Z</time></trkpt><trkpt lat="41.90216842410789" lon="-0.16861063786461056"><ele>357.0</ele><time>2026-03-30T14:15:22Z</time></trkpt><trkpt lat="41.90216421928089" lon="-0.16891614938225416"><ele>357.0</ele><time>2026-03-30T14:15:23Z</time></trkpt><trkpt lat="41.90216168434343" lon="-0.16921508186845097"><ele>358.3333333333333</ele><time>2026-03-30T14:15:24Z</time></trkpt><trkpt lat="41.90215188552468" lon="-0.16951340079688354"><ele>359.66666666666663</ele><time>2026-03-30T14:15:25Z</time></trkpt><trkpt lat="41.902142930498805" lon="-0.1697922205531523"><ele>361.0</ele><time>2026-03-30T14:15:26Z</time></trkpt><trkpt lat="41.90213963311988" lon="-0.17005683388662707"><ele>361.66666666666663</ele><time>2026-03-30T14:15:27Z</time></trkpt><trkpt lat="41.90213855512827" lon="-0.17032552253735384"><ele>362.3333333333333</ele><time>2026-03-30T14:15:28Z</time></trkpt><trkpt lat="41.90213048961448" lon="-0.1706038818445995"><ele>363.0</ele><time>2026-03-30T14:15:29Z</time></trkpt><trkpt lat="41.90211915759032" lon="-0.1708857552181883"><ele>363.0</ele><time>2026-03-30T14:15:30Z</time></trkpt><trkpt lat="41.90211183043185" lon="-0.17115740870928514"><ele>363.0</ele><time>2026-03-30T14:15:31Z</time></trkpt><trkpt lat="41.902106986275854" lon="-0.17142413610253124"><ele>363.0</ele><time>2026-03-30T14:15:32Z</time></trkpt><trkpt lat="41.90210269698642" lon="-0.1716892078742866"><ele>362.6666666666667</ele><time>2026-03-30T14:15:33Z</time></trkpt><trkpt lat="41.9020981385727" lon="-0.17195275631196116"><ele>362.33333333333337</ele><time>2026-03-30T14:15:34Z</time></trkpt><trkpt lat="41.902091414723664" lon="-0.17221646870186966"><ele>362.0</ele><time>2026-03-30T14:15:35Z</time></trkpt><trkpt lat="41.90208766022678" lon="-0.1724903760116264"><ele>362.0</ele><time>2026-03-30T14:15:36Z</time></trkpt><trkpt lat="41.902076791073675" lon="-0.1727909286957922"><ele>362.0</ele><time>2026-03-30T14:15:37Z</time></trkpt><trkpt lat="41.902066529599466" lon="-0.17309784197016842"><ele>363.0</ele><time>2026-03-30T14:15:38Z</time></trkpt><trkpt lat="41.90206136370581" lon="-0.17341972882050025"><ele>364.0</ele><time>2026-03-30T14:15:39Z</time></trkpt><trkpt lat="41.90205904067797" lon="-0.17373512852157216"><ele>365.0</ele><time>2026-03-30T14:15:40Z</time></trkpt><trkpt lat="41.902049160833336" lon="-0.17404211221561702"><ele>366.0</ele><time>2026-03-30T14:15:41Z</time></trkpt><trkpt lat="41.902041042454975" lon="-0.17436715691470392"><ele>366.0</ele><time>2026-03-30T14:15:42Z</time></trkpt><trkpt lat="41.902038063055166" lon="-0.17467374472888209"><ele>366.0</ele><time>2026-03-30T14:15:43Z</time></trkpt><trkpt lat="41.90203646582781" lon="-0.17498221115684728"><ele>368.5</ele><time>2026-03-30T14:15:44Z</time></trkpt><trkpt lat="41.90203004817315" lon="-0.1752883134817601"><ele>371.0</ele><time>2026-03-30T14:15:45Z</time></trkpt><trkpt lat="41.90202409266616" lon="-0.1756232569163387"><ele>370.5</ele><time>2026-03-30T14:15:46Z</time></trkpt><trkpt lat="41.90201703353799" lon="-0.17595189079722823"><ele>370.0</ele><time>2026-03-30T14:15:47Z</time></trkpt><trkpt lat="41.90200412768555" lon="-0.17626878866336043"><ele>368.0</ele><time>2026-03-30T14:15:48Z</time></trkpt><trkpt lat="41.901992735270824" lon="-0.17660113913664008"><ele>366.0</ele><time>2026-03-30T14:15:49Z</time></trkpt><trkpt lat="41.90199237662527" lon="-0.17694209184022233"><ele>366.0</ele><time>2026-03-30T14:15:50Z</time></trkpt><trkpt lat="41.90199221057091" lon="-0.1772673203878971"><ele>366.0</ele><time>2026-03-30T14:15:51Z</time></trkpt><trkpt lat="41.90198695410517" lon="-0.17757573254609083"><ele>367.0</ele><time>2026-03-30T14:15:52Z</time></trkpt><trkpt lat="41.90198653070295" lon="-0.17786105310851993"><ele>368.0</ele><time>2026-03-30T14:15:53Z</time></trkpt><trkpt lat="41.901981133348905" lon="-0.1781501639145567"><ele>369.0</ele><time>2026-03-30T14:15:54Z</time></trkpt><trkpt lat="41.90197430231161" lon="-0.17842279921118046"><ele>370.0</ele><time>2026-03-30T14:15:55Z</time></trkpt><trkpt lat="41.90196573493003" lon="-0.17867524356104672"><ele>371.0</ele><time>2026-03-30T14:15:56Z</time></trkpt><trkpt lat="41.901960257057745" lon="-0.1789006672122308"><ele>372.0</ele><time>2026-03-30T14:15:57Z</time></trkpt><trkpt lat="41.901959585663015" lon="-0.17914567884928045"><ele>371.6666666666667</ele><time>2026-03-30T14:15:58Z</time></trkpt><trkpt lat="41.90195653766411" lon="-0.17938307632184003"><ele>371.33333333333337</ele><time>2026-03-30T14:15:59Z</time></trkpt><trkpt lat="41.90194695251956" lon="-0.17964796793960092"><ele>371.0</ele><time>2026-03-30T14:16:00Z</time></trkpt><trkpt lat="41.90193883477817" lon="-0.1799260839219234"><ele>371.0</ele><time>2026-03-30T14:16:01Z</time></trkpt><trkpt lat="41.90194517850478" lon="-0.18022070752992456"><ele>371.0</ele><time>2026-03-30T14:16:02Z</time></trkpt><trkpt lat="41.901962624190666" lon="-0.18051487652716716"><ele>371.0</ele><time>2026-03-30T14:16:03Z</time></trkpt><trkpt lat="41.90198583270884" lon="-0.18081059969303204"><ele>367.5</ele><time>2026-03-30T14:16:04Z</time></trkpt><trkpt lat="41.90200837509191" lon="-0.1811184422586653"><ele>364.0</ele><time>2026-03-30T14:16:05Z</time></trkpt><trkpt lat="41.90202725528814" lon="-0.18143363671971496"><ele>361.5</ele><time>2026-03-30T14:16:06Z</time></trkpt><trkpt lat="41.902050556661706" lon="-0.1817677350156853"><ele>359.0</ele><time>2026-03-30T14:16:07Z</time></trkpt><trkpt lat="41.90207840690735" lon="-0.18209593611820762"><ele>358.0</ele><time>2026-03-30T14:16:08Z</time></trkpt><trkpt lat="41.90210457994546" lon="-0.1824251117938953"><ele>357.0</ele><time>2026-03-30T14:16:09Z</time></trkpt><trkpt lat="41.90212821765321" lon="-0.1827484946044311"><ele>357.0</ele><time>2026-03-30T14:16:10Z</time></trkpt><trkpt lat="41.90215100357308" lon="-0.18308874543455544"><ele>357.0</ele><time>2026-03-30T14:16:11Z</time></trkpt><trkpt lat="41.902172087632735" lon="-0.18344105870501298"><ele>357.0</ele><time>2026-03-30T14:16:12Z</time></trkpt><trkpt lat="41.90220052740899" lon="-0.18379672773102296"><ele>357.0</ele><time>2026-03-30T14:16:13Z</time></trkpt><trkpt lat="41.902229943773854" lon="-0.18414882366695146"><ele>357.0</ele><time>2026-03-30T14:16:14Z</time></trkpt><trkpt lat="41.90225375619266" lon="-0.18449275888743205"><ele>357.0</ele><time>2026-03-30T14:16:15Z</time></trkpt><trkpt lat="41.90227343124631" lon="-0.18484948466781512"><ele>357.0</ele><time>2026-03-30T14:16:16Z</time></trkpt><trkpt lat="41.90229839270203" lon="-0.18521552707203387"><ele>357.0</ele><time>2026-03-30T14:16:17Z</time></trkpt><trkpt lat="41.90232376620686" lon="-0.1855754909249837"><ele>357.5</ele><time>2026-03-30T14:16:18Z</time></trkpt><trkpt lat="41.90235202754321" lon="-0.18594377732442324"><ele>358.0</ele><time>2026-03-30T14:16:19Z</time></trkpt><trkpt lat="41.90238145233064" lon="-0.1863103693841293"><ele>358.5</ele><time>2026-03-30T14:16:20Z</time></trkpt><trkpt lat="41.90240508809784" lon="-0.1866821567041597"><ele>359.0</ele><time>2026-03-30T14:16:21Z</time></trkpt><trkpt lat="41.902425337827054" lon="-0.1870428071851872"><ele>359.0</ele><time>2026-03-30T14:16:22Z</time></trkpt><trkpt lat="41.902449413161946" lon="-0.18740626064517707"><ele>359.0</ele><time>2026-03-30T14:16:23Z</time></trkpt><trkpt lat="41.902479741665864" lon="-0.18776579364018087"><ele>359.0</ele><time>2026-03-30T14:16:24Z</time></trkpt><trkpt lat="41.90250619520843" lon="-0.18811886387135776"><ele>359.0</ele><time>2026-03-30T14:16:25Z</time></trkpt><trkpt lat="41.90252842701633" lon="-0.18846967014438462"><ele>358.5</ele><time>2026-03-30T14:16:26Z</time></trkpt><trkpt lat="41.902553012218114" lon="-0.18881772421226445"><ele>358.0</ele><time>2026-03-30T14:16:27Z</time></trkpt><trkpt lat="41.90258032309716" lon="-0.18915773171528014"><ele>359.5</ele><time>2026-03-30T14:16:28Z</time></trkpt><trkpt lat="41.90260499864998" lon="-0.1894886069351777"><ele>361.0</ele><time>2026-03-30T14:16:29Z</time></trkpt><trkpt lat="41.902627330103414" lon="-0.1898211428722486"><ele>362.5</ele><time>2026-03-30T14:16:30Z</time></trkpt><trkpt lat="41.90264938194262" lon="-0.19015435747424003"><ele>364.0</ele><time>2026-03-30T14:16:31Z</time></trkpt><trkpt lat="41.90267095028198" lon="-0.190483080718444"><ele>366.5</ele><time>2026-03-30T14:16:32Z</time></trkpt><trkpt lat="41.902692617424165" lon="-0.19080759695414257"><ele>369.0</ele><time>2026-03-30T14:16:33Z</time></trkpt><trkpt lat="41.90271424441948" lon="-0.191116087434382"><ele>369.0</ele><time>2026-03-30T14:16:34Z</time></trkpt><trkpt lat="41.902736980892584" lon="-0.19142523314361373"><ele>369.0</ele><time>2026-03-30T14:16:35Z</time></trkpt><trkpt lat="41.902758424066775" lon="-0.19171345657380198"><ele>369.0</ele><time>2026-03-30T14:16:36Z</time></trkpt><trkpt lat="41.90278422434542" lon="-0.19199655215000078"><ele>369.0</ele><time>2026-03-30T14:16:37Z</time></trkpt><trkpt lat="41.90282259081046" lon="-0.1922774272915876"><ele>369.0</ele><time>2026-03-30T14:16:38Z</time></trkpt><trkpt lat="41.90286613030117" lon="-0.19256700506783186"><ele>369.0</ele><time>2026-03-30T14:16:39Z</time></trkpt><trkpt lat="41.90291380250486" lon="-0.1928725072440058"><ele>369.0</ele><time>2026-03-30T14:16:40Z</time></trkpt><trkpt lat="41.90295589717789" lon="-0.19316379848712167"><ele>369.0</ele><time>2026-03-30T14:16:41Z</time></trkpt><trkpt lat="41.90298594305312" lon="-0.19346259026372756"><ele>369.0</ele><time>2026-03-30T14:16:42Z</time></trkpt><trkpt lat="41.90304419535576" lon="-0.19376397070536575"><ele>369.5</ele><time>2026-03-30T14:16:43Z</time></trkpt><trkpt lat="41.90309213555833" lon="-0.19407374178791126"><ele>370.0</ele><time>2026-03-30T14:16:44Z</time></trkpt><trkpt lat="41.90313040036027" lon="-0.19437797793620573"><ele>370.0</ele><time>2026-03-30T14:16:45Z</time></trkpt><trkpt lat="41.90317517399859" lon="-0.19467422443584215"><ele>370.0</ele><time>2026-03-30T14:16:46Z</time></trkpt><trkpt lat="41.90321643264573" lon="-0.19497294517832794"><ele>370.5</ele><time>2026-03-30T14:16:47Z</time></trkpt><trkpt lat="41.903265101734284" lon="-0.1952764317307497"><ele>371.0</ele><time>2026-03-30T14:16:48Z</time></trkpt><trkpt lat="41.90331484975209" lon="-0.1955787539628052"><ele>371.0</ele><time>2026-03-30T14:16:49Z</time></trkpt><trkpt lat="41.9033705077277" lon="-0.19587956597496184"><ele>371.0</ele><time>2026-03-30T14:16:50Z</time></trkpt><trkpt lat="41.90343636014874" lon="-0.1961673139432989"><ele>371.0</ele><time>2026-03-30T14:16:51Z</time></trkpt><trkpt lat="41.90351517711659" lon="-0.19644857187717887"><ele>371.0</ele><time>2026-03-30T14:16:52Z</time></trkpt><trkpt lat="41.90358880777868" lon="-0.1967335234281439"><ele>371.0</ele><time>2026-03-30T14:16:53Z</time></trkpt><trkpt lat="41.90365946798954" lon="-0.1970152130271521"><ele>371.0</ele><time>2026-03-30T14:16:54Z</time></trkpt><trkpt lat="41.903730689388425" lon="-0.19729657848272866"><ele>371.0</ele><time>2026-03-30T14:16:55Z</time></trkpt><trkpt lat="41.903800136184245" lon="-0.19758116790043204"><ele>371.0</ele><time>2026-03-30T14:16:56Z</time></trkpt><trkpt lat="41.90387287443477" lon="-0.1978769287111546"><ele>366.0</ele><time>2026-03-30T14:16:57Z</time></trkpt><trkpt lat="41.90394724749907" lon="-0.19816908043596015"><ele>361.0</ele><time>2026-03-30T14:16:58Z</time></trkpt><trkpt lat="41.90402882192677" lon="-0.19847035183307465"><ele>361.0</ele><time>2026-03-30T14:16:59Z</time></trkpt><trkpt lat="41.90410390233167" lon="-0.19876989204578674"><ele>361.0</ele><time>2026-03-30T14:17:00Z</time></trkpt><trkpt lat="41.90418027188387" lon="-0.19907400609584663"><ele>360.0</ele><time>2026-03-30T14:17:01Z</time></trkpt><trkpt lat="41.90426104382494" lon="-0.199377838988844"><ele>359.0</ele><time>2026-03-30T14:17:02Z</time></trkpt><trkpt lat="41.904340183102704" lon="-0.19968395269760447"><ele>357.0</ele><time>2026-03-30T14:17:03Z</time></trkpt><trkpt lat="41.90441699241834" lon="-0.19999469968994005"><ele>355.0</ele><time>2026-03-30T14:17:04Z</time></trkpt><trkpt lat="41.9044970989618" lon="-0.2002964105430949"><ele>355.0</ele><time>2026-03-30T14:17:05Z</time></trkpt><trkpt lat="41.90458219740186" lon="-0.20061244384554772"><ele>355.0</ele><time>2026-03-30T14:17:06Z</time></trkpt><trkpt lat="41.90465920536744" lon="-0.2009315551884743"><ele>354.5</ele><time>2026-03-30T14:17:07Z</time></trkpt><trkpt lat="41.9047383931129" lon="-0.20125397502313427"><ele>354.0</ele><time>2026-03-30T14:17:08Z</time></trkpt><trkpt lat="41.9048167350052" lon="-0.2015657088869355"><ele>354.0</ele><time>2026-03-30T14:17:09Z</time></trkpt><trkpt lat="41.90489382118841" lon="-0.2018815711938454"><ele>354.0</ele><time>2026-03-30T14:17:10Z</time></trkpt><trkpt lat="41.904974670823435" lon="-0.2022007583653526"><ele>354.0</ele><time>2026-03-30T14:17:11Z</time></trkpt><trkpt lat="41.90505878526288" lon="-0.2025217843295398"><ele>354.0</ele><time>2026-03-30T14:17:12Z</time></trkpt><trkpt lat="41.90514397163411" lon="-0.20284445208988988"><ele>353.5</ele><time>2026-03-30T14:17:13Z</time></trkpt><trkpt lat="41.905231379037744" lon="-0.20317363953793408"><ele>353.0</ele><time>2026-03-30T14:17:14Z</time></trkpt><trkpt lat="41.905312904584996" lon="-0.2034862149305299"><ele>353.0</ele><time>2026-03-30T14:17:15Z</time></trkpt><trkpt lat="41.9053926359929" lon="-0.20380571555185134"><ele>353.0</ele><time>2026-03-30T14:17:16Z</time></trkpt><trkpt lat="41.90546872572401" lon="-0.20412123440417165"><ele>352.5</ele><time>2026-03-30T14:17:17Z</time></trkpt><trkpt lat="41.905545209176424" lon="-0.20443102221743817"><ele>352.0</ele><time>2026-03-30T14:17:18Z</time></trkpt><trkpt lat="41.905630685468665" lon="-0.20475286332792492"><ele>351.5</ele><time>2026-03-30T14:17:19Z</time></trkpt><trkpt lat="41.90570912940398" lon="-0.2050644807872832"><ele>351.0</ele><time>2026-03-30T14:17:20Z</time></trkpt><trkpt lat="41.905785232184215" lon="-0.2053649004792025"><ele>351.0</ele><time>2026-03-30T14:17:21Z</time></trkpt><trkpt lat="41.9058626802828" lon="-0.20566951480619403"><ele>351.0</ele><time>2026-03-30T14:17:22Z</time></trkpt><trkpt lat="41.90593943665933" lon="-0.2059715540012351"><ele>350.0</ele><time>2026-03-30T14:17:23Z</time></trkpt><trkpt lat="41.90601655438431" lon="-0.20627181719666515"><ele>349.0</ele><time>2026-03-30T14:17:24Z</time></trkpt><trkpt lat="41.90609234237338" lon="-0.20657086546852024"><ele>347.5</ele><time>2026-03-30T14:17:25Z</time></trkpt><trkpt lat="41.90616792838001" lon="-0.20686758723799767"><ele>346.0</ele><time>2026-03-30T14:17:26Z</time></trkpt><trkpt lat="41.906246471810924" lon="-0.20716906341087846"><ele>344.5</ele><time>2026-03-30T14:17:27Z</time></trkpt><trkpt lat="41.906318795275695" lon="-0.20746480174926188"><ele>343.0</ele><time>2026-03-30T14:17:28Z</time></trkpt><trkpt lat="41.906393186211766" lon="-0.20775161446668916"><ele>343.0</ele><time>2026-03-30T14:17:29Z</time></trkpt><trkpt lat="41.90645438483782" lon="-0.20803013222649977"><ele>343.0</ele><time>2026-03-30T14:17:30Z</time></trkpt><trkpt lat="41.90648289774467" lon="-0.20831430673498028"><ele>343.0</ele><time>2026-03-30T14:17:31Z</time></trkpt><trkpt lat="41.90648925116515" lon="-0.20858996146440612"><ele>343.0</ele><time>2026-03-30T14:17:32Z</time></trkpt><trkpt lat="41.90648563734828" lon="-0.20885099709668162"><ele>343.0</ele><time>2026-03-30T14:17:33Z</time></trkpt><trkpt lat="41.90647891894214" lon="-0.20909485284285084"><ele>343.0</ele><time>2026-03-30T14:17:34Z</time></trkpt><trkpt lat="41.9064764688555" lon="-0.20933970603229676"><ele>342.66666666666663</ele><time>2026-03-30T14:17:35Z</time></trkpt><trkpt lat="41.90648009209421" lon="-0.2095678561485078"><ele>342.3333333333333</ele><time>2026-03-30T14:17:36Z</time></trkpt><trkpt lat="41.90648888368442" lon="-0.2097889347902394"><ele>342.0</ele><time>2026-03-30T14:17:37Z</time></trkpt><trkpt lat="41.90650546488981" lon="-0.21003426782262888"><ele>342.0</ele><time>2026-03-30T14:17:38Z</time></trkpt><trkpt lat="41.90654671557864" lon="-0.21026768421176956"><ele>342.0</ele><time>2026-03-30T14:17:39Z</time></trkpt><trkpt lat="41.906621692754385" lon="-0.21051284537419895"><ele>342.0</ele><time>2026-03-30T14:17:40Z</time></trkpt><trkpt lat="41.90672403961783" lon="-0.2107708250575413"><ele>342.3333333333333</ele><time>2026-03-30T14:17:41Z</time></trkpt><trkpt lat="41.90683477208394" lon="-0.21098712278886517"><ele>342.66666666666663</ele><time>2026-03-30T14:17:42Z</time></trkpt><trkpt lat="41.906939766983434" lon="-0.21118172982123737"><ele>343.0</ele><time>2026-03-30T14:17:43Z</time></trkpt><trkpt lat="41.90703897559449" lon="-0.21136460556956305"><ele>344.0</ele><time>2026-03-30T14:17:44Z</time></trkpt><trkpt lat="41.90714114049438" lon="-0.21155227010639738"><ele>345.0</ele><time>2026-03-30T14:17:45Z</time></trkpt><trkpt lat="41.907253041141246" lon="-0.21173567295460852"><ele>346.0</ele><time>2026-03-30T14:17:46Z</time></trkpt><trkpt lat="41.907375237429385" lon="-0.21191823859733797"><ele>346.0</ele><time>2026-03-30T14:17:47Z</time></trkpt><trkpt lat="41.90748445767088" lon="-0.21210072154597148"><ele>346.0</ele><time>2026-03-30T14:17:48Z</time></trkpt><trkpt lat="41.90757400297431" lon="-0.2122787387317752"><ele>346.0</ele><time>2026-03-30T14:17:49Z</time></trkpt><trkpt lat="41.90766325441805" lon="-0.21243146810319227"><ele>346.0</ele><time>2026-03-30T14:17:50Z</time></trkpt><trkpt lat="41.90765334838348" lon="-0.21266535637348816"><ele>346.0</ele><time>2026-03-30T14:17:51Z</time></trkpt><trkpt lat="41.907694609637005" lon="-0.2128352276705105"><ele>346.0</ele><time>2026-03-30T14:17:52Z</time></trkpt><trkpt lat="41.907716564078264" lon="-0.21299275274629692"><ele>346.0</ele><time>2026-03-30T14:17:53Z</time></trkpt><trkpt lat="41.9077106302726" lon="-0.2131461584123929"><ele>346.75</ele><time>2026-03-30T14:17:54Z</time></trkpt><trkpt lat="41.90767548760316" lon="-0.2132890925784534"><ele>347.5</ele><time>2026-03-30T14:17:55Z</time></trkpt><trkpt lat="41.90762875883892" lon="-0.21343826233397079"><ele>348.25</ele><time>2026-03-30T14:17:56Z</time></trkpt><trkpt lat="41.907580408773704" lon="-0.21360069406639814"><ele>349.0</ele><time>2026-03-30T14:17:57Z</time></trkpt><trkpt lat="41.907532706544906" lon="-0.21378179621860727"><ele>349.0</ele><time>2026-03-30T14:17:58Z</time></trkpt><trkpt lat="41.90747608764551" lon="-0.2139662179643946"><ele>349.0</ele><time>2026-03-30T14:17:59Z</time></trkpt><trkpt lat="41.90742384024881" lon="-0.21415403579005882"><ele>349.0</ele><time>2026-03-30T14:18:00Z</time></trkpt><trkpt lat="41.90737555655948" lon="-0.21434960329520236"><ele>349.3333333333333</ele><time>2026-03-30T14:18:01Z</time></trkpt><trkpt lat="41.90732857864358" lon="-0.2145600434061135"><ele>349.6666666666667</ele><time>2026-03-30T14:18:02Z</time></trkpt><trkpt lat="41.90730789921347" lon="-0.21477849152630976"><ele>350.0</ele><time>2026-03-30T14:18:03Z</time></trkpt><trkpt lat="41.90732840719841" lon="-0.21499113464035222"><ele>350.33333333333337</ele><time>2026-03-30T14:18:04Z</time></trkpt><trkpt lat="41.90737657405434" lon="-0.21519774659793325"><ele>350.6666666666667</ele><time>2026-03-30T14:18:05Z</time></trkpt><trkpt lat="41.90739221342398" lon="-0.2153886239991972"><ele>351.0</ele><time>2026-03-30T14:18:06Z</time></trkpt><trkpt lat="41.907389047403385" lon="-0.2155874811763241"><ele>351.0</ele><time>2026-03-30T14:18:07Z</time></trkpt><trkpt lat="41.90734497780981" lon="-0.21575504527235564"><ele>351.0</ele><time>2026-03-30T14:18:08Z</time></trkpt><trkpt lat="41.907279994390535" lon="-0.21590396319271948"><ele>351.0</ele><time>2026-03-30T14:18:09Z</time></trkpt><trkpt lat="41.907183516914316" lon="-0.21606465970090774"><ele>351.0</ele><time>2026-03-30T14:18:10Z</time></trkpt><trkpt lat="41.90706870082899" lon="-0.21624966953953928"><ele>351.0</ele><time>2026-03-30T14:18:11Z</time></trkpt><trkpt lat="41.90695559565976" lon="-0.2164473132397496"><ele>351.0</ele><time>2026-03-30T14:18:12Z</time></trkpt><trkpt lat="41.90685491760253" lon="-0.2166473074851619"><ele>351.0</ele><time>2026-03-30T14:18:13Z</time></trkpt><trkpt lat="41.90677014884141" lon="-0.21685493267660083"><ele>350.0</ele><time>2026-03-30T14:18:14Z</time></trkpt><trkpt lat="41.9066938602332" lon="-0.21706845749833306"><ele>349.0</ele><time>2026-03-30T14:18:15Z</time></trkpt><trkpt lat="41.90662704541362" lon="-0.2172933624579573"><ele>348.0</ele><time>2026-03-30T14:18:16Z</time></trkpt><trkpt lat="41.90656620617625" lon="-0.21754336107890818"><ele>348.0</ele><time>2026-03-30T14:18:17Z</time></trkpt><trkpt lat="41.90651076275274" lon="-0.21779787334485487"><ele>348.0</ele><time>2026-03-30T14:18:18Z</time></trkpt><trkpt lat="41.90645229359436" lon="-0.2180555618956154"><ele>348.0</ele><time>2026-03-30T14:18:19Z</time></trkpt><trkpt lat="41.90637913254595" lon="-0.21830411180714357"><ele>348.0</ele><time>2026-03-30T14:18:20Z</time></trkpt><trkpt lat="41.906300642000176" lon="-0.2185539690922745"><ele>348.0</ele><time>2026-03-30T14:18:21Z</time></trkpt><trkpt lat="41.90622737296377" lon="-0.21880500485593404"><ele>348.0</ele><time>2026-03-30T14:18:22Z</time></trkpt><trkpt lat="41.90615882536537" lon="-0.2190555078317863"><ele>348.0</ele><time>2026-03-30T14:18:23Z</time></trkpt><trkpt lat="41.90609870023763" lon="-0.21931291164922997"><ele>348.0</ele><time>2026-03-30T14:18:24Z</time></trkpt><trkpt lat="41.90603601076912" lon="-0.21956861700296798"><ele>348.0</ele><time>2026-03-30T14:18:25Z</time></trkpt><trkpt lat="41.90596593364057" lon="-0.21982504774593847"><ele>348.0</ele><time>2026-03-30T14:18:26Z</time></trkpt><trkpt lat="41.905888548610854" lon="-0.22008139990733144"><ele>348.0</ele><time>2026-03-30T14:18:27Z</time></trkpt><trkpt lat="41.90581179535721" lon="-0.22036712615913553"><ele>348.0</ele><time>2026-03-30T14:18:28Z</time></trkpt><trkpt lat="41.9057331658249" lon="-0.2206666493361076"><ele>348.3333333333333</ele><time>2026-03-30T14:18:29Z</time></trkpt><trkpt lat="41.90566165951266" lon="-0.22093800895036303"><ele>348.66666666666663</ele><time>2026-03-30T14:18:30Z</time></trkpt><trkpt lat="41.905587508645404" lon="-0.2212181827825789"><ele>349.0</ele><time>2026-03-30T14:18:31Z</time></trkpt><trkpt lat="41.90552022021698" lon="-0.2214710304743819"><ele>348.66666666666663</ele><time>2026-03-30T14:18:32Z</time></trkpt><trkpt lat="41.90545299236948" lon="-0.2217072461243626"><ele>348.3333333333333</ele><time>2026-03-30T14:18:33Z</time></trkpt><trkpt lat="41.905380212747914" lon="-0.22194269544789577"><ele>348.0</ele><time>2026-03-30T14:18:34Z</time></trkpt><trkpt lat="41.905307010529484" lon="-0.22220659204029283"><ele>348.6666666666667</ele><time>2026-03-30T14:18:35Z</time></trkpt><trkpt lat="41.90523647389705" lon="-0.2224621039292814"><ele>349.33333333333337</ele><time>2026-03-30T14:18:36Z</time></trkpt><trkpt lat="41.90516609158023" lon="-0.22271710725145544"><ele>350.0</ele><time>2026-03-30T14:18:37Z</time></trkpt><trkpt lat="41.90509226171135" lon="-0.22298155753577195"><ele>349.0</ele><time>2026-03-30T14:18:38Z</time></trkpt><trkpt lat="41.90501562048153" lon="-0.2232491860502336"><ele>348.0</ele><time>2026-03-30T14:18:39Z</time></trkpt><trkpt lat="41.90493971998222" lon="-0.22351694145613266"><ele>347.0</ele><time>2026-03-30T14:18:40Z</time></trkpt><trkpt lat="41.90486961964382" lon="-0.22377743449889337"><ele>348.0</ele><time>2026-03-30T14:18:41Z</time></trkpt><trkpt lat="41.90480375735695" lon="-0.22403969402328344"><ele>349.0</ele><time>2026-03-30T14:18:42Z</time></trkpt><trkpt lat="41.90472773168885" lon="-0.22429240936708233"><ele>350.0</ele><time>2026-03-30T14:18:43Z</time></trkpt><trkpt lat="41.9046494427619" lon="-0.22454985978769304"><ele>350.0</ele><time>2026-03-30T14:18:44Z</time></trkpt><trkpt lat="41.904579465428874" lon="-0.22480749751662923"><ele>350.0</ele><time>2026-03-30T14:18:45Z</time></trkpt><trkpt lat="41.90450525793384" lon="-0.22507039392276795"><ele>350.0</ele><time>2026-03-30T14:18:46Z</time></trkpt><trkpt lat="41.904437651195" lon="-0.22532334516512453"><ele>350.0</ele><time>2026-03-30T14:18:47Z</time></trkpt><trkpt lat="41.90436964503046" lon="-0.22557786744014163"><ele>350.0</ele><time>2026-03-30T14:18:48Z</time></trkpt><trkpt lat="41.90429933169365" lon="-0.22582895288314977"><ele>350.0</ele><time>2026-03-30T14:18:49Z</time></trkpt><trkpt lat="41.904225406810596" lon="-0.2260789052601013"><ele>348.6666666666667</ele><time>2026-03-30T14:18:50Z</time></trkpt><trkpt lat="41.90415056637544" lon="-0.22633163091229455"><ele>347.3333333333333</ele><time>2026-03-30T14:18:51Z</time></trkpt><trkpt lat="41.90407902946802" lon="-0.22658448715409307"><ele>346.0</ele><time>2026-03-30T14:18:52Z</time></trkpt><trkpt lat="41.904012257824355" lon="-0.22683211477078544"><ele>346.0</ele><time>2026-03-30T14:18:53Z</time></trkpt><trkpt lat="41.903941183126754" lon="-0.22709041324375218"><ele>346.0</ele><time>2026-03-30T14:18:54Z</time></trkpt><trkpt lat="41.9038667298965" lon="-0.2273572775831136"><ele>346.0</ele><time>2026-03-30T14:18:55Z</time></trkpt><trkpt lat="41.90379098911621" lon="-0.2276286964075844"><ele>346.3333333333333</ele><time>2026-03-30T14:18:56Z</time></trkpt><trkpt lat="41.90371136836011" lon="-0.22790288821232413"><ele>346.6666666666667</ele><time>2026-03-30T14:18:57Z</time></trkpt><trkpt lat="41.903629927352284" lon="-0.22817863924695622"><ele>347.0</ele><time>2026-03-30T14:18:58Z</time></trkpt><trkpt lat="41.90354911959446" lon="-0.22845628649111538"><ele>347.0</ele><time>2026-03-30T14:18:59Z</time></trkpt><trkpt lat="41.90347426041889" lon="-0.22873589168231415"><ele>347.0</ele><time>2026-03-30T14:19:00Z</time></trkpt><trkpt lat="41.90339741744547" lon="-0.22901744438745875"><ele>347.0</ele><time>2026-03-30T14:19:01Z</time></trkpt><trkpt lat="41.90332333327287" lon="-0.22930148666418862"><ele>345.5</ele><time>2026-03-30T14:19:02Z</time></trkpt><trkpt lat="41.90324218229681" lon="-0.22960239909774602"><ele>344.0</ele><time>2026-03-30T14:19:03Z</time></trkpt><trkpt lat="41.903156191916445" lon="-0.22989872585088367"><ele>343.5</ele><time>2026-03-30T14:19:04Z</time></trkpt><trkpt lat="41.903067752709084" lon="-0.23021619588933456"><ele>343.0</ele><time>2026-03-30T14:19:05Z</time></trkpt><trkpt lat="41.90298135544674" lon="-0.23051736998848393"><ele>344.0</ele><time>2026-03-30T14:19:06Z</time></trkpt><trkpt lat="41.90289986294064" lon="-0.2308156028490582"><ele>345.0</ele><time>2026-03-30T14:19:07Z</time></trkpt><trkpt lat="41.90281483744242" lon="-0.23111460523891353"><ele>345.0</ele><time>2026-03-30T14:19:08Z</time></trkpt><trkpt lat="41.902731347013194" lon="-0.23140838850914439"><ele>345.0</ele><time>2026-03-30T14:19:09Z</time></trkpt><trkpt lat="41.90264921596633" lon="-0.2317037137726656"><ele>346.0</ele><time>2026-03-30T14:19:10Z</time></trkpt><trkpt lat="41.90256690728423" lon="-0.2320077235788129"><ele>347.0</ele><time>2026-03-30T14:19:11Z</time></trkpt><trkpt lat="41.9024881745076" lon="-0.2323151893320516"><ele>348.0</ele><time>2026-03-30T14:19:12Z</time></trkpt><trkpt lat="41.90240855654454" lon="-0.23261309733374963"><ele>349.0</ele><time>2026-03-30T14:19:13Z</time></trkpt><trkpt lat="41.90232909189621" lon="-0.23290063898450206"><ele>349.0</ele><time>2026-03-30T14:19:14Z</time></trkpt><trkpt lat="41.90224309421246" lon="-0.23320718650197436"><ele>349.0</ele><time>2026-03-30T14:19:15Z</time></trkpt><trkpt lat="41.902151446040214" lon="-0.23351508015649802"><ele>349.0</ele><time>2026-03-30T14:19:16Z</time></trkpt><trkpt lat="41.90206297540606" lon="-0.23382297736445826"><ele>349.0</ele><time>2026-03-30T14:19:17Z</time></trkpt><trkpt lat="41.901980086602954" lon="-0.2341283940479996"><ele>347.5</ele><time>2026-03-30T14:19:18Z</time></trkpt><trkpt lat="41.90189585541127" lon="-0.23442563491586607"><ele>346.0</ele><time>2026-03-30T14:19:19Z</time></trkpt><trkpt lat="41.90180620879029" lon="-0.23472327742368324"><ele>343.5</ele><time>2026-03-30T14:19:20Z</time></trkpt><trkpt lat="41.90170969477884" lon="-0.23499819185861318"><ele>341.0</ele><time>2026-03-30T14:19:21Z</time></trkpt><trkpt lat="41.901593061162075" lon="-0.23526364477019213"><ele>341.0</ele><time>2026-03-30T14:19:22Z</time></trkpt><trkpt lat="41.9014686744362" lon="-0.23551165979037372"><ele>341.0</ele><time>2026-03-30T14:19:23Z</time></trkpt><trkpt lat="41.90134464617922" lon="-0.23575155419105126"><ele>341.0</ele><time>2026-03-30T14:19:24Z</time></trkpt><trkpt lat="41.90122159914433" lon="-0.2359973571336005"><ele>341.33333333333337</ele><time>2026-03-30T14:19:25Z</time></trkpt><trkpt lat="41.901107536293146" lon="-0.23624419557695578"><ele>341.6666666666667</ele><time>2026-03-30T14:19:26Z</time></trkpt><trkpt lat="41.90099700626022" lon="-0.23650303763448924"><ele>342.0</ele><time>2026-03-30T14:19:27Z</time></trkpt><trkpt lat="41.900889993543586" lon="-0.2367627641474318"><ele>340.5</ele><time>2026-03-30T14:19:28Z</time></trkpt><trkpt lat="41.90077545835008" lon="-0.23702244906589673"><ele>339.0</ele><time>2026-03-30T14:19:29Z</time></trkpt><trkpt lat="41.90065364418047" lon="-0.2372909257456769"><ele>339.5</ele><time>2026-03-30T14:19:30Z</time></trkpt><trkpt lat="41.900522054831775" lon="-0.2375657262761668"><ele>340.0</ele><time>2026-03-30T14:19:31Z</time></trkpt><trkpt lat="41.90039307442829" lon="-0.23784066515049257"><ele>340.0</ele><time>2026-03-30T14:19:32Z</time></trkpt><trkpt lat="41.90027373164303" lon="-0.23811309842055825"><ele>340.0</ele><time>2026-03-30T14:19:33Z</time></trkpt><trkpt lat="41.90015204784926" lon="-0.23838532284996616"><ele>338.5</ele><time>2026-03-30T14:19:34Z</time></trkpt><trkpt lat="41.9000282251798" lon="-0.23865066677651223"><ele>337.0</ele><time>2026-03-30T14:19:35Z</time></trkpt><trkpt lat="41.89990463008404" lon="-0.23891853055154597"><ele>336.66666666666663</ele><time>2026-03-30T14:19:36Z</time></trkpt><trkpt lat="41.899786937798766" lon="-0.2391833271427448"><ele>336.3333333333333</ele><time>2026-03-30T14:19:37Z</time></trkpt><trkpt lat="41.899677733622696" lon="-0.23943636677715255"><ele>336.0</ele><time>2026-03-30T14:19:38Z</time></trkpt><trkpt lat="41.89957338156358" lon="-0.23965406767598949"><ele>336.6666666666667</ele><time>2026-03-30T14:19:39Z</time></trkpt><trkpt lat="41.89946662600511" lon="-0.2398842526679435"><ele>337.33333333333337</ele><time>2026-03-30T14:19:40Z</time></trkpt><trkpt lat="41.89936187006842" lon="-0.24011955308206612"><ele>338.0</ele><time>2026-03-30T14:19:41Z</time></trkpt><trkpt lat="41.899248879325754" lon="-0.24035525004332484"><ele>338.0</ele><time>2026-03-30T14:19:42Z</time></trkpt><trkpt lat="41.89914307532306" lon="-0.24058899134131614"><ele>338.0</ele><time>2026-03-30T14:19:43Z</time></trkpt><trkpt lat="41.899033085830816" lon="-0.24083157045419845"><ele>338.0</ele><time>2026-03-30T14:19:44Z</time></trkpt><trkpt lat="41.8989180399198" lon="-0.24107023264682959"><ele>338.33333333333337</ele><time>2026-03-30T14:19:45Z</time></trkpt><trkpt lat="41.8988086989931" lon="-0.24130833868186702"><ele>338.6666666666667</ele><time>2026-03-30T14:19:46Z</time></trkpt><trkpt lat="41.89870884737727" lon="-0.24154908951340043"><ele>339.0</ele><time>2026-03-30T14:19:47Z</time></trkpt><trkpt lat="41.89860370314453" lon="-0.24178736196283263"><ele>339.3333333333333</ele><time>2026-03-30T14:19:48Z</time></trkpt><trkpt lat="41.89849683525149" lon="-0.242031480373533"><ele>339.66666666666663</ele><time>2026-03-30T14:19:49Z</time></trkpt><trkpt lat="41.89838300666694" lon="-0.24228071699423728"><ele>340.0</ele><time>2026-03-30T14:19:50Z</time></trkpt><trkpt lat="41.898255926592796" lon="-0.242553670737198"><ele>342.5</ele><time>2026-03-30T14:19:51Z</time></trkpt><trkpt lat="41.89813093892741" lon="-0.24282346136113309"><ele>345.0</ele><time>2026-03-30T14:19:52Z</time></trkpt><trkpt lat="41.89800797405487" lon="-0.24307974191177695"><ele>345.0</ele><time>2026-03-30T14:19:53Z</time></trkpt><trkpt lat="41.89788538959682" lon="-0.24333287357107208"><ele>345.0</ele><time>2026-03-30T14:19:54Z</time></trkpt><trkpt lat="41.897766669221035" lon="-0.24359554456420532"><ele>345.0</ele><time>2026-03-30T14:19:55Z</time></trkpt><trkpt lat="41.89765720418247" lon="-0.24385649668705392"><ele>345.0</ele><time>2026-03-30T14:19:56Z</time></trkpt><trkpt lat="41.897529480832155" lon="-0.24411989598336772"><ele>343.3333333333333</ele><time>2026-03-30T14:19:57Z</time></trkpt><trkpt lat="41.89741164353125" lon="-0.24437357909200333"><ele>341.66666666666663</ele><time>2026-03-30T14:19:58Z</time></trkpt><trkpt lat="41.89730315958692" lon="-0.24462210803510606"><ele>340.0</ele><time>2026-03-30T14:19:59Z</time></trkpt><trkpt lat="41.897188922872765" lon="-0.24487295611127557"><ele>340.0</ele><time>2026-03-30T14:20:00Z</time></trkpt><trkpt lat="41.89707137632307" lon="-0.2451239629719044"><ele>340.0</ele><time>2026-03-30T14:20:01Z</time></trkpt><trkpt lat="41.896954238439285" lon="-0.24538456255037733"><ele>340.0</ele><time>2026-03-30T14:20:02Z</time></trkpt><trkpt lat="41.89683412372243" lon="-0.24564651626985842"><ele>338.0</ele><time>2026-03-30T14:20:03Z</time></trkpt><trkpt lat="41.89671352014167" lon="-0.24591123895264327"><ele>336.0</ele><time>2026-03-30T14:20:04Z</time></trkpt><trkpt lat="41.896600219811184" lon="-0.2461633013603777"><ele>336.0</ele><time>2026-03-30T14:20:05Z</time></trkpt><trkpt lat="41.89648590986642" lon="-0.2464152156354475"><ele>336.0</ele><time>2026-03-30T14:20:06Z</time></trkpt><trkpt lat="41.896370543525244" lon="-0.24666293885742455"><ele>336.0</ele><time>2026-03-30T14:20:07Z</time></trkpt><trkpt lat="41.896254666959166" lon="-0.24691227082019546"><ele>336.6666666666667</ele><time>2026-03-30T14:20:08Z</time></trkpt><trkpt lat="41.89614070298635" lon="-0.24715609109307568"><ele>337.33333333333337</ele><time>2026-03-30T14:20:09Z</time></trkpt><trkpt lat="41.89602521234582" lon="-0.24740697775965212"><ele>338.0</ele><time>2026-03-30T14:20:10Z</time></trkpt><trkpt lat="41.89590901698385" lon="-0.2476610005025319"><ele>338.0</ele><time>2026-03-30T14:20:11Z</time></trkpt><trkpt lat="41.895795684289894" lon="-0.24792122907434283"><ele>338.0</ele><time>2026-03-30T14:20:12Z</time></trkpt><trkpt lat="41.89568025828309" lon="-0.24817936565378362"><ele>338.0</ele><time>2026-03-30T14:20:13Z</time></trkpt><trkpt lat="41.895555374339935" lon="-0.24845343484868596"><ele>339.0</ele><time>2026-03-30T14:20:14Z</time></trkpt><trkpt lat="41.895438646750776" lon="-0.2487233780800843"><ele>340.0</ele><time>2026-03-30T14:20:15Z</time></trkpt><trkpt lat="41.89532137323874" lon="-0.24899032504297136"><ele>339.5</ele><time>2026-03-30T14:20:16Z</time></trkpt><trkpt lat="41.895188570777606" lon="-0.24926001307203363"><ele>339.0</ele><time>2026-03-30T14:20:17Z</time></trkpt><trkpt lat="41.89505253990846" lon="-0.24953450360743826"><ele>338.0</ele><time>2026-03-30T14:20:18Z</time></trkpt><trkpt lat="41.894930750825374" lon="-0.24981726831685908"><ele>337.0</ele><time>2026-03-30T14:20:19Z</time></trkpt><trkpt lat="41.8948182012732" lon="-0.25008846215115016"><ele>337.0</ele><time>2026-03-30T14:20:20Z</time></trkpt><trkpt lat="41.89470016624773" lon="-0.2503457384024328"><ele>337.0</ele><time>2026-03-30T14:20:21Z</time></trkpt><trkpt lat="41.89457661821649" lon="-0.25061210789981253"><ele>334.5</ele><time>2026-03-30T14:20:22Z</time></trkpt><trkpt lat="41.89444957244148" lon="-0.25087863503478763"><ele>332.0</ele><time>2026-03-30T14:20:23Z</time></trkpt><trkpt lat="41.89432462175118" lon="-0.2511496989289128"><ele>335.0</ele><time>2026-03-30T14:20:24Z</time></trkpt><trkpt lat="41.89420440719184" lon="-0.25142492460262883"><ele>338.0</ele><time>2026-03-30T14:20:25Z</time></trkpt><trkpt lat="41.894085603818915" lon="-0.2516962064288515"><ele>338.0</ele><time>2026-03-30T14:20:26Z</time></trkpt><trkpt lat="41.893972841620865" lon="-0.2519598011126466"><ele>338.0</ele><time>2026-03-30T14:20:27Z</time></trkpt><trkpt lat="41.89385424959108" lon="-0.25222323854465944"><ele>336.5</ele><time>2026-03-30T14:20:28Z</time></trkpt><trkpt lat="41.89373583268816" lon="-0.25247853567029066"><ele>335.0</ele><time>2026-03-30T14:20:29Z</time></trkpt><trkpt lat="41.8936087663473" lon="-0.25273921782171077"><ele>335.0</ele><time>2026-03-30T14:20:30Z</time></trkpt><trkpt lat="41.89347800128177" lon="-0.25302726359372507"><ele>335.0</ele><time>2026-03-30T14:20:31Z</time></trkpt><trkpt lat="41.893358083484564" lon="-0.2532954037629983"><ele>333.5</ele><time>2026-03-30T14:20:32Z</time></trkpt><trkpt lat="41.89323770216767" lon="-0.25356388823132725"><ele>332.0</ele><time>2026-03-30T14:20:33Z</time></trkpt><trkpt lat="41.89311383268731" lon="-0.25383153583432727"><ele>330.0</ele><time>2026-03-30T14:20:34Z</time></trkpt><trkpt lat="41.893006530839564" lon="-0.2540798852751403"><ele>328.0</ele><time>2026-03-30T14:20:35Z</time></trkpt><trkpt lat="41.89290029699353" lon="-0.2543315055122449"><ele>326.0</ele><time>2026-03-30T14:20:36Z</time></trkpt><trkpt lat="41.892787936690006" lon="-0.2545697651345217"><ele>326.0</ele><time>2026-03-30T14:20:37Z</time></trkpt><trkpt lat="41.89268104306184" lon="-0.2548019672425993"><ele>326.0</ele><time>2026-03-30T14:20:38Z</time></trkpt><trkpt lat="41.89258849897373" lon="-0.25500598110718786"><ele>326.0</ele><time>2026-03-30T14:20:39Z</time></trkpt><trkpt lat="41.892494462895066" lon="-0.25521143865024976"><ele>326.0</ele><time>2026-03-30T14:20:40Z</time></trkpt><trkpt lat="41.89239192009347" lon="-0.25542782007524656"><ele>326.0</ele><time>2026-03-30T14:20:41Z</time></trkpt><trkpt lat="41.892286942808575" lon="-0.2556534707185803"><ele>326.0</ele><time>2026-03-30T14:20:42Z</time></trkpt><trkpt lat="41.892174482909034" lon="-0.25589661942147796"><ele>324.33333333333337</ele><time>2026-03-30T14:20:43Z</time></trkpt><trkpt lat="41.89205224548438" lon="-0.2561543701428479"><ele>322.6666666666667</ele><time>2026-03-30T14:20:44Z</time></trkpt><trkpt lat="41.89193500785391" lon="-0.2563996414670316"><ele>321.0</ele><time>2026-03-30T14:20:45Z</time></trkpt><trkpt lat="41.89181171187038" lon="-0.2566561888719984"><ele>320.0</ele><time>2026-03-30T14:20:46Z</time></trkpt><trkpt lat="41.891694793003545" lon="-0.25690357153337207"><ele>319.0</ele><time>2026-03-30T14:20:47Z</time></trkpt><trkpt lat="41.89157612335086" lon="-0.2571724508799707"><ele>316.5</ele><time>2026-03-30T14:20:48Z</time></trkpt><trkpt lat="41.89145715801319" lon="-0.2574405704901511"><ele>314.0</ele><time>2026-03-30T14:20:49Z</time></trkpt><trkpt lat="41.891333936390225" lon="-0.2577067071481264"><ele>314.0</ele><time>2026-03-30T14:20:50Z</time></trkpt><trkpt lat="41.89120538829637" lon="-0.2579893561879036"><ele>314.0</ele><time>2026-03-30T14:20:51Z</time></trkpt><trkpt lat="41.891074390046434" lon="-0.2582811796973793"><ele>314.0</ele><time>2026-03-30T14:20:52Z</time></trkpt><trkpt lat="41.89094817613724" lon="-0.25855901800716297"><ele>314.0</ele><time>2026-03-30T14:20:53Z</time></trkpt><trkpt lat="41.89082287238596" lon="-0.25884106502595133"><ele>313.0</ele><time>2026-03-30T14:20:54Z</time></trkpt><trkpt lat="41.890700210058746" lon="-0.2591110827385721"><ele>312.0</ele><time>2026-03-30T14:20:55Z</time></trkpt><trkpt lat="41.8905797150276" lon="-0.2593729212892188"><ele>312.0</ele><time>2026-03-30T14:20:56Z</time></trkpt><trkpt lat="41.890461163914246" lon="-0.25962726302711775"><ele>312.0</ele><time>2026-03-30T14:20:57Z</time></trkpt><trkpt lat="41.89034953409122" lon="-0.25987977802999485"><ele>312.0</ele><time>2026-03-30T14:20:58Z</time></trkpt><trkpt lat="41.8902337168875" lon="-0.260132290931774"><ele>310.3333333333333</ele><time>2026-03-30T14:20:59Z</time></trkpt><trkpt lat="41.89012082350348" lon="-0.26038262348284086"><ele>308.66666666666663</ele><time>2026-03-30T14:21:00Z</time></trkpt><trkpt lat="41.89000922402499" lon="-0.2606356866419592"><ele>307.0</ele><time>2026-03-30T14:21:01Z</time></trkpt><trkpt lat="41.889896220171416" lon="-0.26088975860360586"><ele>307.0</ele><time>2026-03-30T14:21:02Z</time></trkpt><trkpt lat="41.88978277262482" lon="-0.26114354928384903"><ele>307.0</ele><time>2026-03-30T14:21:03Z</time></trkpt><trkpt lat="41.889669258512946" lon="-0.26139108791852583"><ele>307.0</ele><time>2026-03-30T14:21:04Z</time></trkpt><trkpt lat="41.88954667555154" lon="-0.26165411094133556"><ele>307.5</ele><time>2026-03-30T14:21:05Z</time></trkpt><trkpt lat="41.8894268878192" lon="-0.2619194651255556"><ele>308.0</ele><time>2026-03-30T14:21:06Z</time></trkpt><trkpt lat="41.88929758139025" lon="-0.26219785505982285"><ele>308.0</ele><time>2026-03-30T14:21:07Z</time></trkpt><trkpt lat="41.88917433758276" lon="-0.26247231008114297"><ele>308.0</ele><time>2026-03-30T14:21:08Z</time></trkpt><trkpt lat="41.889054461416336" lon="-0.26274105327839953"><ele>308.0</ele><time>2026-03-30T14:21:09Z</time></trkpt><trkpt lat="41.88893422774154" lon="-0.26300868416788376"><ele>308.0</ele><time>2026-03-30T14:21:10Z</time></trkpt><trkpt lat="41.88881556213555" lon="-0.2632748864563642"><ele>310.5</ele><time>2026-03-30T14:21:11Z</time></trkpt><trkpt lat="41.88869307564856" lon="-0.26355058441234397"><ele>313.0</ele><time>2026-03-30T14:21:12Z</time></trkpt><trkpt lat="41.88856482973525" lon="-0.26383753541152793"><ele>313.5</ele><time>2026-03-30T14:21:13Z</time></trkpt><trkpt lat="41.88843963232484" lon="-0.2641180650490171"><ele>314.0</ele><time>2026-03-30T14:21:14Z</time></trkpt><trkpt lat="41.888326702155354" lon="-0.26439221123328815"><ele>314.0</ele><time>2026-03-30T14:21:15Z</time></trkpt><trkpt lat="41.88822033003726" lon="-0.26465753777648615"><ele>314.0</ele><time>2026-03-30T14:21:16Z</time></trkpt><trkpt lat="41.888112089260716" lon="-0.2649145721159239"><ele>314.0</ele><time>2026-03-30T14:21:17Z</time></trkpt><trkpt lat="41.88799565880697" lon="-0.2651750138282621"><ele>314.5</ele><time>2026-03-30T14:21:18Z</time></trkpt><trkpt lat="41.88786753123116" lon="-0.26545085571799076"><ele>315.0</ele><time>2026-03-30T14:21:19Z</time></trkpt><trkpt lat="41.88773691133308" lon="-0.2657212771118367"><ele>315.0</ele><time>2026-03-30T14:21:20Z</time></trkpt><trkpt lat="41.88760393765" lon="-0.2659951166251949"><ele>315.0</ele><time>2026-03-30T14:21:21Z</time></trkpt><trkpt lat="41.88747730457459" lon="-0.2662641373287388"><ele>313.0</ele><time>2026-03-30T14:21:22Z</time></trkpt><trkpt lat="41.88735397155729" lon="-0.26653655233079504"><ele>311.0</ele><time>2026-03-30T14:21:23Z</time></trkpt><trkpt lat="41.88723311298418" lon="-0.2668054461627785"><ele>311.0</ele><time>2026-03-30T14:21:24Z</time></trkpt><trkpt lat="41.88711520439745" lon="-0.26707664957431176"><ele>311.0</ele><time>2026-03-30T14:21:25Z</time></trkpt><trkpt lat="41.88699437136853" lon="-0.26734955395926974"><ele>310.5</ele><time>2026-03-30T14:21:26Z</time></trkpt><trkpt lat="41.88686584874508" lon="-0.2676378041597809"><ele>310.0</ele><time>2026-03-30T14:21:27Z</time></trkpt><trkpt lat="41.886745154867555" lon="-0.26792007608300383"><ele>307.5</ele><time>2026-03-30T14:21:28Z</time></trkpt><trkpt lat="41.88661825410772" lon="-0.26820462764006386"><ele>305.0</ele><time>2026-03-30T14:21:29Z</time></trkpt><trkpt lat="41.88649282207397" lon="-0.26849496918918525"><ele>305.0</ele><time>2026-03-30T14:21:30Z</time></trkpt><trkpt lat="41.88636850318601" lon="-0.26878157947685727"><ele>305.0</ele><time>2026-03-30T14:21:31Z</time></trkpt><trkpt lat="41.88624376852303" lon="-0.26906772402900603"><ele>304.0</ele><time>2026-03-30T14:21:32Z</time></trkpt><trkpt lat="41.88611747814096" lon="-0.26935364826458247"><ele>303.0</ele><time>2026-03-30T14:21:33Z</time></trkpt><trkpt lat="41.88600149410032" lon="-0.26962964108097875"><ele>302.0</ele><time>2026-03-30T14:21:34Z</time></trkpt><trkpt lat="41.88589375538547" lon="-0.26990507826247606"><ele>301.0</ele><time>2026-03-30T14:21:35Z</time></trkpt><trkpt lat="41.88579104755293" lon="-0.2701623370274291"><ele>300.0</ele><time>2026-03-30T14:21:36Z</time></trkpt><trkpt lat="41.88568054437374" lon="-0.2703990508049669"><ele>300.0</ele><time>2026-03-30T14:21:37Z</time></trkpt><trkpt lat="41.885565780552625" lon="-0.27065078866928105"><ele>300.0</ele><time>2026-03-30T14:21:38Z</time></trkpt><trkpt lat="41.88545095423044" lon="-0.2708957422468668"><ele>300.0</ele><time>2026-03-30T14:21:39Z</time></trkpt><trkpt lat="41.885334594773276" lon="-0.27114857981233464"><ele>300.0</ele><time>2026-03-30T14:21:40Z</time></trkpt><trkpt lat="41.88523741366388" lon="-0.27139753124029803"><ele>300.0</ele><time>2026-03-30T14:21:41Z</time></trkpt><trkpt lat="41.88513270113668" lon="-0.2716508517734519"><ele>300.0</ele><time>2026-03-30T14:21:42Z</time></trkpt><trkpt lat="41.885025226062176" lon="-0.27190169328086766"><ele>300.0</ele><time>2026-03-30T14:21:43Z</time></trkpt><trkpt lat="41.884918358275236" lon="-0.2721565303025922"><ele>300.0</ele><time>2026-03-30T14:21:44Z</time></trkpt><trkpt lat="41.88480416468378" lon="-0.2724128512743099"><ele>300.0</ele><time>2026-03-30T14:21:45Z</time></trkpt><trkpt lat="41.88468590269361" lon="-0.2726761024964025"><ele>300.0</ele><time>2026-03-30T14:21:46Z</time></trkpt><trkpt lat="41.88455410509552" lon="-0.2729680738860297"><ele>300.0</ele><time>2026-03-30T14:21:47Z</time></trkpt><trkpt lat="41.88443083043366" lon="-0.2732290757798925"><ele>300.0</ele><time>2026-03-30T14:21:48Z</time></trkpt><trkpt lat="41.884313645420846" lon="-0.2734941717972392"><ele>300.0</ele><time>2026-03-30T14:21:49Z</time></trkpt><trkpt lat="41.88419822125662" lon="-0.2737591427861261"><ele>299.0</ele><time>2026-03-30T14:21:50Z</time></trkpt><trkpt lat="41.884084703951885" lon="-0.2740242528413636"><ele>298.0</ele><time>2026-03-30T14:21:51Z</time></trkpt><trkpt lat="41.883970927213255" lon="-0.2742882888291743"><ele>298.0</ele><time>2026-03-30T14:21:52Z</time></trkpt><trkpt lat="41.88385426626402" lon="-0.27456198834517426"><ele>298.0</ele><time>2026-03-30T14:21:53Z</time></trkpt><trkpt lat="41.883723680682564" lon="-0.27484619663581855"><ele>297.5</ele><time>2026-03-30T14:21:54Z</time></trkpt><trkpt lat="41.88359419982969" lon="-0.27512954252478333"><ele>297.0</ele><time>2026-03-30T14:21:55Z</time></trkpt><trkpt lat="41.88345799241977" lon="-0.27541898573000634"><ele>296.0</ele><time>2026-03-30T14:21:56Z</time></trkpt><trkpt lat="41.88332611186498" lon="-0.27569899394061365"><ele>295.0</ele><time>2026-03-30T14:21:57Z</time></trkpt><trkpt lat="41.88319989775023" lon="-0.2759775163548001"><ele>295.0</ele><time>2026-03-30T14:21:58Z</time></trkpt><trkpt lat="41.88309539621861" lon="-0.276230683766805"><ele>295.0</ele><time>2026-03-30T14:21:59Z</time></trkpt><trkpt lat="41.88299473374508" lon="-0.2764690540884735"><ele>295.0</ele><time>2026-03-30T14:22:00Z</time></trkpt><trkpt lat="41.88288891128486" lon="-0.27671947414858594"><ele>294.66666666666663</ele><time>2026-03-30T14:22:01Z</time></trkpt><trkpt lat="41.882781339596306" lon="-0.27696870546956365"><ele>294.3333333333333</ele><time>2026-03-30T14:22:02Z</time></trkpt><trkpt lat="41.8826881237772" lon="-0.27720673625539766"><ele>294.0</ele><time>2026-03-30T14:22:03Z</time></trkpt><trkpt lat="41.882603884687526" lon="-0.2774175641108782"><ele>294.6666666666667</ele><time>2026-03-30T14:22:04Z</time></trkpt><trkpt lat="41.88250229187082" lon="-0.2776308592672495"><ele>295.33333333333337</ele><time>2026-03-30T14:22:05Z</time></trkpt><trkpt lat="41.88240610873416" lon="-0.27783495028742233"><ele>296.0</ele><time>2026-03-30T14:22:06Z</time></trkpt><trkpt lat="41.88231629283756" lon="-0.2780347835910435"><ele>296.0</ele><time>2026-03-30T14:22:07Z</time></trkpt><trkpt lat="41.88224299979512" lon="-0.2782075482020401"><ele>296.0</ele><time>2026-03-30T14:22:08Z</time></trkpt><trkpt lat="41.882154224367795" lon="-0.27841088343511344"><ele>296.0</ele><time>2026-03-30T14:22:09Z</time></trkpt><trkpt lat="41.882048679815306" lon="-0.27864809428934295"><ele>296.0</ele><time>2026-03-30T14:22:10Z</time></trkpt><trkpt lat="41.88193572884549" lon="-0.27890566005045303"><ele>296.0</ele><time>2026-03-30T14:22:11Z</time></trkpt><trkpt lat="41.881831060586435" lon="-0.2791361616654731"><ele>296.0</ele><time>2026-03-30T14:22:12Z</time></trkpt><trkpt lat="41.881734891242075" lon="-0.27934711631304215"><ele>295.6666666666667</ele><time>2026-03-30T14:22:13Z</time></trkpt><trkpt lat="41.881640741658885" lon="-0.2795638393831494"><ele>295.3333333333333</ele><time>2026-03-30T14:22:14Z</time></trkpt><trkpt lat="41.8815560589325" lon="-0.2797606101050658"><ele>295.0</ele><time>2026-03-30T14:22:15Z</time></trkpt><trkpt lat="41.88148138542472" lon="-0.2799292690569239"><ele>295.0</ele><time>2026-03-30T14:22:16Z</time></trkpt><trkpt lat="41.8814142121555" lon="-0.28008858563237193"><ele>295.0</ele><time>2026-03-30T14:22:17Z</time></trkpt><trkpt lat="41.881362472162444" lon="-0.28021314287508825"><ele>295.0</ele><time>2026-03-30T14:22:18Z</time></trkpt><trkpt lat="41.881309645769115" lon="-0.28033347158959404"><ele>295.0</ele><time>2026-03-30T14:22:19Z</time></trkpt><trkpt lat="41.88125761795557" lon="-0.2804519432998768"><ele>295.0</ele><time>2026-03-30T14:22:20Z</time></trkpt><trkpt lat="41.88121006499789" lon="-0.2805596861070283"><ele>295.0</ele><time>2026-03-30T14:22:21Z</time></trkpt><trkpt lat="41.88116551644477" lon="-0.2806612882207376"><ele>295.0</ele><time>2026-03-30T14:22:22Z</time></trkpt><trkpt lat="41.88112624693903" lon="-0.28075186008901837"><ele>295.0</ele><time>2026-03-30T14:22:23Z</time></trkpt><trkpt lat="41.88108882398822" lon="-0.280835914725546"><ele>295.0</ele><time>2026-03-30T14:22:24Z</time></trkpt><trkpt lat="41.881039941192256" lon="-0.28094489906633335"><ele>295.0</ele><time>2026-03-30T14:22:26Z</time></trkpt><trkpt lat="41.880991399629664" lon="-0.2810387230616823"><ele>295.0</ele><time>2026-03-30T14:22:29Z</time></trkpt><trkpt lat="41.88093020253212" lon="-0.28110530270384404"><ele>295.0</ele><time>2026-03-30T14:24:02Z</time></trkpt><trkpt lat="41.880871333571015" lon="-0.28117787624077234"><ele>295.0</ele><time>2026-03-30T14:24:04Z</time></trkpt><trkpt lat="41.88080532212373" lon="-0.28124514912842924"><ele>295.0</ele><time>2026-03-30T14:24:06Z</time></trkpt><trkpt lat="41.88072457422077" lon="-0.2813251493565153"><ele>295.0</ele><time>2026-03-30T14:24:08Z</time></trkpt><trkpt lat="41.88063086153441" lon="-0.2814283098438719"><ele>295.0</ele><time>2026-03-30T14:24:10Z</time></trkpt><trkpt lat="41.8805800737638" lon="-0.2814930323224524"><ele>295.2</ele><time>2026-03-30T14:24:11Z</time></trkpt><trkpt lat="41.88052156160253" lon="-0.2815739970364858"><ele>295.4</ele><time>2026-03-30T14:24:12Z</time></trkpt><trkpt lat="41.88045585659044" lon="-0.281662559154125"><ele>295.6</ele><time>2026-03-30T14:24:13Z</time></trkpt><trkpt lat="41.88039158809734" lon="-0.28176580271194734"><ele>295.8</ele><time>2026-03-30T14:24:14Z</time></trkpt><trkpt lat="41.880331258334465" lon="-0.2818922946684123"><ele>296.0</ele><time>2026-03-30T14:24:15Z</time></trkpt><trkpt lat="41.88027673862444" lon="-0.2820128468714446"><ele>296.0</ele><time>2026-03-30T14:24:16Z</time></trkpt><trkpt lat="41.880219053727885" lon="-0.28211674839058526"><ele>296.0</ele><time>2026-03-30T14:24:17Z</time></trkpt><trkpt lat="41.8801593651884" lon="-0.28220000879096296"><ele>296.0</ele><time>2026-03-30T14:24:18Z</time></trkpt><trkpt lat="41.88007658622029" lon="-0.2822670804783722"><ele>296.0</ele><time>2026-03-30T14:24:19Z</time></trkpt><trkpt lat="41.87997979616077" lon="-0.28231924977070644"><ele>296.0</ele><time>2026-03-30T14:24:20Z</time></trkpt><trkpt lat="41.87986692410171" lon="-0.2823340603183778"><ele>295.5</ele><time>2026-03-30T14:24:21Z</time></trkpt><trkpt lat="41.87974795094954" lon="-0.2823135612353275"><ele>295.0</ele><time>2026-03-30T14:24:22Z</time></trkpt><trkpt lat="41.879629410388105" lon="-0.2822676582238798"><ele>294.5</ele><time>2026-03-30T14:24:23Z</time></trkpt><trkpt lat="41.87951239094374" lon="-0.28219155358708436"><ele>294.0</ele><time>2026-03-30T14:24:24Z</time></trkpt><trkpt lat="41.87940237217824" lon="-0.2820735573271223"><ele>293.6666666666667</ele><time>2026-03-30T14:24:25Z</time></trkpt><trkpt lat="41.87930459471862" lon="-0.28192631343043206"><ele>293.33333333333337</ele><time>2026-03-30T14:24:26Z</time></trkpt><trkpt lat="41.87921492589592" lon="-0.28176218191619157"><ele>293.0</ele><time>2026-03-30T14:24:27Z</time></trkpt><trkpt lat="41.87912812885078" lon="-0.2815928620887088"><ele>293.6666666666667</ele><time>2026-03-30T14:24:28Z</time></trkpt><trkpt lat="41.87903966589391" lon="-0.281418922053159"><ele>294.3333333333333</ele><time>2026-03-30T14:24:29Z</time></trkpt><trkpt lat="41.878954488440336" lon="-0.28124193740513853"><ele>295.0</ele><time>2026-03-30T14:24:30Z</time></trkpt><trkpt lat="41.87888059825239" lon="-0.2810869901108569"><ele>295.0</ele><time>2026-03-30T14:24:31Z</time></trkpt><trkpt lat="41.87880922878007" lon="-0.28095009638006074"><ele>295.0</ele><time>2026-03-30T14:24:32Z</time></trkpt><trkpt lat="41.87874670943698" lon="-0.28082482705979606"><ele>295.0</ele><time>2026-03-30T14:24:33Z</time></trkpt><trkpt lat="41.878687807597856" lon="-0.2807043810711019"><ele>295.0</ele><time>2026-03-30T14:24:34Z</time></trkpt><trkpt lat="41.87862643045597" lon="-0.2805897455381654"><ele>295.0</ele><time>2026-03-30T14:24:35Z</time></trkpt><trkpt lat="41.878544752189164" lon="-0.2805040711830628"><ele>295.16666666666663</ele><time>2026-03-30T14:24:36Z</time></trkpt><trkpt lat="41.87846439184119" lon="-0.2804217920228974"><ele>295.3333333333333</ele><time>2026-03-30T14:24:37Z</time></trkpt><trkpt lat="41.87838030101758" lon="-0.2803674394369845"><ele>295.5</ele><time>2026-03-30T14:24:38Z</time></trkpt><trkpt lat="41.87830224253992" lon="-0.2803542541666011"><ele>295.6666666666667</ele><time>2026-03-30T14:24:39Z</time></trkpt><trkpt lat="41.87822927028141" lon="-0.28035197577755916"><ele>295.83333333333337</ele><time>2026-03-30T14:24:40Z</time></trkpt><trkpt lat="41.87815762099382" lon="-0.2803853404438835"><ele>296.0</ele><time>2026-03-30T14:24:41Z</time></trkpt><trkpt lat="41.87809098843251" lon="-0.2804469328672475"><ele>296.0</ele><time>2026-03-30T14:24:42Z</time></trkpt><trkpt lat="41.878046674574826" lon="-0.28054221553767955"><ele>296.0</ele><time>2026-03-30T14:24:43Z</time></trkpt><trkpt lat="41.87802029230655" lon="-0.28064553986463253"><ele>296.0</ele><time>2026-03-30T14:24:44Z</time></trkpt><trkpt lat="41.87800865053751" lon="-0.2807545789478728"><ele>296.0</ele><time>2026-03-30T14:24:45Z</time></trkpt><trkpt lat="41.87801671170362" lon="-0.28087591555274677"><ele>296.0</ele><time>2026-03-30T14:24:46Z</time></trkpt><trkpt lat="41.87805580287771" lon="-0.2810215143420381"><ele>296.0</ele><time>2026-03-30T14:24:47Z</time></trkpt><trkpt lat="41.87810514623143" lon="-0.28116387211327354"><ele>296.0</ele><time>2026-03-30T14:24:48Z</time></trkpt><trkpt lat="41.878167973357876" lon="-0.2813117670990706"><ele>296.0</ele><time>2026-03-30T14:24:49Z</time></trkpt><trkpt lat="41.87825731802635" lon="-0.2814518304217783"><ele>296.0</ele><time>2026-03-30T14:24:50Z</time></trkpt><trkpt lat="41.878358315561165" lon="-0.2815810671200985"><ele>295.6666666666667</ele><time>2026-03-30T14:24:51Z</time></trkpt><trkpt lat="41.8785141555328" lon="-0.28162852439945985"><ele>295.3333333333333</ele><time>2026-03-30T14:24:52Z</time></trkpt><trkpt lat="41.878647806918295" lon="-0.2817139839215433"><ele>295.0</ele><time>2026-03-30T14:24:53Z</time></trkpt><trkpt lat="41.87877573269255" lon="-0.28180637118083085"><ele>295.0</ele><time>2026-03-30T14:24:54Z</time></trkpt><trkpt lat="41.878909416307685" lon="-0.2819106711929713"><ele>295.0</ele><time>2026-03-30T14:24:55Z</time></trkpt><trkpt lat="41.879058470241574" lon="-0.28201980446703584"><ele>295.0</ele><time>2026-03-30T14:24:56Z</time></trkpt><trkpt lat="41.879214790429316" lon="-0.28213183851582124"><ele>294.66666666666663</ele><time>2026-03-30T14:24:57Z</time></trkpt><trkpt lat="41.87937778010914" lon="-0.2822518341464679"><ele>294.3333333333333</ele><time>2026-03-30T14:24:58Z</time></trkpt><trkpt lat="41.879543114308355" lon="-0.2823643435253414"><ele>294.0</ele><time>2026-03-30T14:24:59Z</time></trkpt><trkpt lat="41.87970736215407" lon="-0.2824829349434051"><ele>294.0</ele><time>2026-03-30T14:25:00Z</time></trkpt><trkpt lat="41.87987320526728" lon="-0.2826070358947854"><ele>294.0</ele><time>2026-03-30T14:25:01Z</time></trkpt><trkpt lat="41.88004098948258" lon="-0.28272467687837627"><ele>294.0</ele><time>2026-03-30T14:25:02Z</time></trkpt><trkpt lat="41.8802087880944" lon="-0.2828442774363047"><ele>295.3333333333333</ele><time>2026-03-30T14:25:03Z</time></trkpt><trkpt lat="41.880372328209816" lon="-0.28296901385682843"><ele>296.66666666666663</ele><time>2026-03-30T14:25:04Z</time></trkpt><trkpt lat="41.88054144594531" lon="-0.283089709649192"><ele>298.0</ele><time>2026-03-30T14:25:05Z</time></trkpt><trkpt lat="41.88071316000762" lon="-0.28320913184009777"><ele>298.0</ele><time>2026-03-30T14:25:06Z</time></trkpt><trkpt lat="41.8808840986769" lon="-0.2833343413363137"><ele>298.0</ele><time>2026-03-30T14:25:07Z</time></trkpt><trkpt lat="41.88104820306546" lon="-0.2834537208711374"><ele>298.0</ele><time>2026-03-30T14:25:08Z</time></trkpt><trkpt lat="41.88119885884239" lon="-0.2835616659340572"><ele>299.0</ele><time>2026-03-30T14:25:09Z</time></trkpt><trkpt lat="41.881334247504334" lon="-0.2836606145739127"><ele>300.0</ele><time>2026-03-30T14:25:10Z</time></trkpt><trkpt lat="41.88146820162424" lon="-0.28376021650578004"><ele>301.0</ele><time>2026-03-30T14:25:11Z</time></trkpt><trkpt lat="41.88159999072565" lon="-0.28385471882811025"><ele>301.0</ele><time>2026-03-30T14:25:12Z</time></trkpt><trkpt lat="41.88173280546246" lon="-0.2839518882414491"><ele>301.0</ele><time>2026-03-30T14:25:13Z</time></trkpt><trkpt lat="41.8818662515703" lon="-0.28405570893079846"><ele>301.0</ele><time>2026-03-30T14:25:14Z</time></trkpt><trkpt lat="41.88200040321514" lon="-0.2841639159391882"><ele>301.0</ele><time>2026-03-30T14:25:15Z</time></trkpt><trkpt lat="41.88214724100751" lon="-0.28429948170595304"><ele>301.0</ele><time>2026-03-30T14:25:16Z</time></trkpt><trkpt lat="41.88229725125339" lon="-0.28444453542976106"><ele>301.0</ele><time>2026-03-30T14:25:17Z</time></trkpt><trkpt lat="41.88243953224455" lon="-0.2845961699860343"><ele>301.0</ele><time>2026-03-30T14:25:18Z</time></trkpt><trkpt lat="41.882572270776585" lon="-0.28475527070069184"><ele>301.0</ele><time>2026-03-30T14:25:19Z</time></trkpt><trkpt lat="41.88270003476148" lon="-0.2849273113047059"><ele>301.0</ele><time>2026-03-30T14:25:20Z</time></trkpt><trkpt lat="41.882821195833934" lon="-0.28511259122352084"><ele>301.0</ele><time>2026-03-30T14:25:21Z</time></trkpt><trkpt lat="41.8829423278379" lon="-0.28530414611914046"><ele>301.0</ele><time>2026-03-30T14:25:22Z</time></trkpt><trkpt lat="41.883064519921774" lon="-0.2855064854462261"><ele>301.0</ele><time>2026-03-30T14:25:23Z</time></trkpt><trkpt lat="41.88318733188209" lon="-0.2857111316674955"><ele>301.0</ele><time>2026-03-30T14:25:24Z</time></trkpt><trkpt lat="41.88331003223778" lon="-0.2859163271895514"><ele>301.0</ele><time>2026-03-30T14:25:25Z</time></trkpt><trkpt lat="41.88343330067728" lon="-0.2861208629723857"><ele>301.0</ele><time>2026-03-30T14:25:26Z</time></trkpt><trkpt lat="41.88355622806681" lon="-0.28632475893858517"><ele>301.3333333333333</ele><time>2026-03-30T14:25:27Z</time></trkpt><trkpt lat="41.88367934386971" lon="-0.2865299121950299"><ele>301.6666666666667</ele><time>2026-03-30T14:25:28Z</time></trkpt><trkpt lat="41.883800162344876" lon="-0.28673492257044036"><ele>302.0</ele><time>2026-03-30T14:25:29Z</time></trkpt><trkpt lat="41.88392181859767" lon="-0.2869385686817213"><ele>302.0</ele><time>2026-03-30T14:25:30Z</time></trkpt><trkpt lat="41.884038921973406" lon="-0.287133905972546"><ele>302.0</ele><time>2026-03-30T14:25:31Z</time></trkpt><trkpt lat="41.88415159542528" lon="-0.2873234746498838"><ele>302.0</ele><time>2026-03-30T14:25:32Z</time></trkpt><trkpt lat="41.884263074506684" lon="-0.2875129264706067"><ele>302.0</ele><time>2026-03-30T14:25:33Z</time></trkpt><trkpt lat="41.88437497046297" lon="-0.28770434479414086"><ele>302.0</ele><time>2026-03-30T14:25:34Z</time></trkpt><trkpt lat="41.884492592375146" lon="-0.28789818072744616"><ele>302.0</ele><time>2026-03-30T14:25:35Z</time></trkpt><trkpt lat="41.88461406643783" lon="-0.28809797457638886"><ele>302.6666666666667</ele><time>2026-03-30T14:25:36Z</time></trkpt><trkpt lat="41.88473692767418" lon="-0.288308037953741"><ele>303.3333333333333</ele><time>2026-03-30T14:25:37Z</time></trkpt><trkpt lat="41.88486513342643" lon="-0.28852410211585106"><ele>304.0</ele><time>2026-03-30T14:25:38Z</time></trkpt><trkpt lat="41.88499512854077" lon="-0.28874167265160505"><ele>304.3333333333333</ele><time>2026-03-30T14:25:39Z</time></trkpt><trkpt lat="41.885127465104375" lon="-0.2889621401811263"><ele>304.6666666666667</ele><time>2026-03-30T14:25:40Z</time></trkpt><trkpt lat="41.88526320560389" lon="-0.28919463945425433"><ele>305.0</ele><time>2026-03-30T14:25:41Z</time></trkpt><trkpt lat="41.885400889373216" lon="-0.2894264070353498"><ele>305.0</ele><time>2026-03-30T14:25:42Z</time></trkpt><trkpt lat="41.88554024746635" lon="-0.2896529595746846"><ele>305.0</ele><time>2026-03-30T14:25:43Z</time></trkpt><trkpt lat="41.88568106329952" lon="-0.28988094818267224"><ele>305.0</ele><time>2026-03-30T14:25:44Z</time></trkpt><trkpt lat="41.88582146385523" lon="-0.29012110389066054"><ele>306.0</ele><time>2026-03-30T14:25:45Z</time></trkpt><trkpt lat="41.8859663690777" lon="-0.29036585207231747"><ele>307.0</ele><time>2026-03-30T14:25:46Z</time></trkpt><trkpt lat="41.88611512929153" lon="-0.29061417596912925"><ele>307.0</ele><time>2026-03-30T14:25:47Z</time></trkpt><trkpt lat="41.886261402581525" lon="-0.29085968449324023"><ele>307.0</ele><time>2026-03-30T14:25:48Z</time></trkpt><trkpt lat="41.88640506758499" lon="-0.2911027009385219"><ele>307.0</ele><time>2026-03-30T14:25:49Z</time></trkpt><trkpt lat="41.88654870777078" lon="-0.29133559064922504"><ele>307.0</ele><time>2026-03-30T14:25:50Z</time></trkpt><trkpt lat="41.886687670055" lon="-0.2915653410534112"><ele>307.0</ele><time>2026-03-30T14:25:51Z</time></trkpt><trkpt lat="41.88681870890494" lon="-0.29178247465184975"><ele>307.0</ele><time>2026-03-30T14:25:52Z</time></trkpt><trkpt lat="41.88693919571652" lon="-0.29198341851145165"><ele>307.0</ele><time>2026-03-30T14:25:53Z</time></trkpt><trkpt lat="41.88704681950931" lon="-0.29216551006795527"><ele>307.0</ele><time>2026-03-30T14:25:54Z</time></trkpt><trkpt lat="41.88715821086152" lon="-0.292360974452984"><ele>307.3333333333333</ele><time>2026-03-30T14:25:55Z</time></trkpt><trkpt lat="41.88727467645466" lon="-0.2925607106242381"><ele>307.6666666666667</ele><time>2026-03-30T14:25:56Z</time></trkpt><trkpt lat="41.88740436350331" lon="-0.29276852778426693"><ele>308.0</ele><time>2026-03-30T14:25:57Z</time></trkpt><trkpt lat="41.8875296597943" lon="-0.2929817815373162"><ele>308.0</ele><time>2026-03-30T14:25:58Z</time></trkpt><trkpt lat="41.887659352666894" lon="-0.2931991667271405"><ele>308.0</ele><time>2026-03-30T14:25:59Z</time></trkpt><trkpt lat="41.887794756955834" lon="-0.2934167983331987"><ele>308.0</ele><time>2026-03-30T14:26:00Z</time></trkpt><trkpt lat="41.887928469985745" lon="-0.29363998625626786"><ele>308.0</ele><time>2026-03-30T14:26:01Z</time></trkpt><trkpt lat="41.88805191103119" lon="-0.2938583318718801"><ele>308.0</ele><time>2026-03-30T14:26:02Z</time></trkpt><trkpt lat="41.88818332625498" lon="-0.2940754791485143"><ele>308.0</ele><time>2026-03-30T14:26:03Z</time></trkpt><trkpt lat="41.88831224252915" lon="-0.29429090069431635"><ele>309.33333333333337</ele><time>2026-03-30T14:26:04Z</time></trkpt><trkpt lat="41.88844035816645" lon="-0.29450862708845266"><ele>310.6666666666667</ele><time>2026-03-30T14:26:05Z</time></trkpt><trkpt lat="41.88857107923901" lon="-0.29473413656245223"><ele>312.0</ele><time>2026-03-30T14:26:06Z</time></trkpt><trkpt lat="41.88870432555468" lon="-0.294958638248693"><ele>312.0</ele><time>2026-03-30T14:26:07Z</time></trkpt><trkpt lat="41.888839441408024" lon="-0.2951840502682228"><ele>312.0</ele><time>2026-03-30T14:26:08Z</time></trkpt><trkpt lat="41.8889744716582" lon="-0.29540686856849463"><ele>312.0</ele><time>2026-03-30T14:26:09Z</time></trkpt><trkpt lat="41.88910671105563" lon="-0.2956336098193965"><ele>312.3333333333333</ele><time>2026-03-30T14:26:10Z</time></trkpt><trkpt lat="41.88923571174129" lon="-0.2958586868873596"><ele>312.66666666666663</ele><time>2026-03-30T14:26:11Z</time></trkpt><trkpt lat="41.8893665346115" lon="-0.29607864080966767"><ele>313.0</ele><time>2026-03-30T14:26:12Z</time></trkpt><trkpt lat="41.88949900212019" lon="-0.2962972723694312"><ele>313.0</ele><time>2026-03-30T14:26:13Z</time></trkpt><trkpt lat="41.88963202981863" lon="-0.2965123974337964"><ele>313.0</ele><time>2026-03-30T14:26:14Z</time></trkpt><trkpt lat="41.889766310596166" lon="-0.2967274671647611"><ele>313.0</ele><time>2026-03-30T14:26:15Z</time></trkpt><trkpt lat="41.889899788858216" lon="-0.2969468740283681"><ele>313.0</ele><time>2026-03-30T14:26:16Z</time></trkpt><trkpt lat="41.890031351854454" lon="-0.29717003139132514"><ele>313.0</ele><time>2026-03-30T14:26:17Z</time></trkpt><trkpt lat="41.89016593642062" lon="-0.2973949641064222"><ele>313.0</ele><time>2026-03-30T14:26:18Z</time></trkpt><trkpt lat="41.890301205234266" lon="-0.2976253466947282"><ele>313.0</ele><time>2026-03-30T14:26:19Z</time></trkpt><trkpt lat="41.890451615133024" lon="-0.2978496881309894"><ele>313.0</ele><time>2026-03-30T14:26:20Z</time></trkpt><trkpt lat="41.89057787967724" lon="-0.2980778053926609"><ele>313.0</ele><time>2026-03-30T14:26:21Z</time></trkpt><trkpt lat="41.890713219410245" lon="-0.29830596347520505"><ele>312.3333333333333</ele><time>2026-03-30T14:26:22Z</time></trkpt><trkpt lat="41.89084815947252" lon="-0.2985368522197212"><ele>311.6666666666667</ele><time>2026-03-30T14:26:23Z</time></trkpt><trkpt lat="41.890988775561496" lon="-0.2987707604244451"><ele>311.0</ele><time>2026-03-30T14:26:24Z</time></trkpt><trkpt lat="41.89112948136921" lon="-0.29900627043028283"><ele>311.0</ele><time>2026-03-30T14:26:25Z</time></trkpt><trkpt lat="41.891270952008604" lon="-0.299241020179263"><ele>311.0</ele><time>2026-03-30T14:26:26Z</time></trkpt><trkpt lat="41.89141348758257" lon="-0.29947612762428955"><ele>311.0</ele><time>2026-03-30T14:26:27Z</time></trkpt><trkpt lat="41.8915527184964" lon="-0.2997138942938266"><ele>311.0</ele><time>2026-03-30T14:26:28Z</time></trkpt><trkpt lat="41.89169102181603" lon="-0.2999470118287433"><ele>311.0</ele><time>2026-03-30T14:26:29Z</time></trkpt><trkpt lat="41.891832295006814" lon="-0.30017515648760706"><ele>311.33333333333337</ele><time>2026-03-30T14:26:30Z</time></trkpt><trkpt lat="41.891967500777085" lon="-0.30040258140161236"><ele>311.6666666666667</ele><time>2026-03-30T14:26:31Z</time></trkpt><trkpt lat="41.89210005495886" lon="-0.30062686190176946"><ele>312.0</ele><time>2026-03-30T14:26:32Z</time></trkpt><trkpt lat="41.892237492266766" lon="-0.3008517905328899"><ele>312.0</ele><time>2026-03-30T14:26:33Z</time></trkpt><trkpt lat="41.89237556739707" lon="-0.3010742275444311"><ele>312.0</ele><time>2026-03-30T14:26:34Z</time></trkpt><trkpt lat="41.892506300202484" lon="-0.3013014639868387"><ele>312.0</ele><time>2026-03-30T14:26:35Z</time></trkpt><trkpt lat="41.89263767514332" lon="-0.3015272886053933"><ele>312.6666666666667</ele><time>2026-03-30T14:26:36Z</time></trkpt><trkpt lat="41.89277825334159" lon="-0.3017510275710228"><ele>313.33333333333337</ele><time>2026-03-30T14:26:37Z</time></trkpt><trkpt lat="41.89291334415777" lon="-0.3019756677741014"><ele>314.0</ele><time>2026-03-30T14:26:38Z</time></trkpt><trkpt lat="41.89304664296714" lon="-0.3022020958646967"><ele>314.0</ele><time>2026-03-30T14:26:39Z</time></trkpt><trkpt lat="41.893184156672014" lon="-0.30242494204922277"><ele>314.0</ele><time>2026-03-30T14:26:40Z</time></trkpt><trkpt lat="41.89332730811512" lon="-0.30263970730965417"><ele>314.0</ele><time>2026-03-30T14:26:41Z</time></trkpt><trkpt lat="41.89347428717524" lon="-0.30284974855684865"><ele>314.0</ele><time>2026-03-30T14:26:42Z</time></trkpt><trkpt lat="41.8936261687346" lon="-0.303063665793862"><ele>314.0</ele><time>2026-03-30T14:26:43Z</time></trkpt><trkpt lat="41.8937788046213" lon="-0.3032892056264231"><ele>314.0</ele><time>2026-03-30T14:26:44Z</time></trkpt><trkpt lat="41.89393808234109" lon="-0.3035012703688977"><ele>314.0</ele><time>2026-03-30T14:26:45Z</time></trkpt><trkpt lat="41.89409893486567" lon="-0.30371315593714976"><ele>314.0</ele><time>2026-03-30T14:26:46Z</time></trkpt><trkpt lat="41.89426035161984" lon="-0.3039245586847589"><ele>315.5</ele><time>2026-03-30T14:26:47Z</time></trkpt><trkpt lat="41.894425800203344" lon="-0.30413321780712554"><ele>317.0</ele><time>2026-03-30T14:26:48Z</time></trkpt><trkpt lat="41.89459195384457" lon="-0.30433592316943175"><ele>317.0</ele><time>2026-03-30T14:26:49Z</time></trkpt><trkpt lat="41.89476084610593" lon="-0.304536983766369"><ele>317.0</ele><time>2026-03-30T14:26:50Z</time></trkpt><trkpt lat="41.89492827082105" lon="-0.3047380050341985"><ele>316.33333333333337</ele><time>2026-03-30T14:26:51Z</time></trkpt><trkpt lat="41.895097252749956" lon="-0.30493827241026344"><ele>315.6666666666667</ele><time>2026-03-30T14:26:52Z</time></trkpt><trkpt lat="41.89525845439509" lon="-0.3051304611094202"><ele>315.0</ele><time>2026-03-30T14:26:53Z</time></trkpt><trkpt lat="41.89541944572924" lon="-0.3053256046669283"><ele>315.0</ele><time>2026-03-30T14:26:54Z</time></trkpt><trkpt lat="41.89558134584887" lon="-0.3055201559270766"><ele>315.0</ele><time>2026-03-30T14:26:55Z</time></trkpt><trkpt lat="41.8957492720665" lon="-0.3057239439070587"><ele>315.0</ele><time>2026-03-30T14:26:56Z</time></trkpt><trkpt lat="41.89591830651511" lon="-0.30593240735149757"><ele>315.5</ele><time>2026-03-30T14:26:57Z</time></trkpt><trkpt lat="41.89609156119275" lon="-0.30614259578717806"><ele>316.0</ele><time>2026-03-30T14:26:58Z</time></trkpt><trkpt lat="41.8962671648575" lon="-0.30635228700703737"><ele>316.5</ele><time>2026-03-30T14:26:59Z</time></trkpt><trkpt lat="41.89644527638194" lon="-0.30656863413513896"><ele>317.0</ele><time>2026-03-30T14:27:00Z</time></trkpt><trkpt lat="41.896624838405955" lon="-0.3067875455128497"><ele>317.0</ele><time>2026-03-30T14:27:01Z</time></trkpt><trkpt lat="41.8968106158185" lon="-0.3070067951817523"><ele>317.0</ele><time>2026-03-30T14:27:02Z</time></trkpt><trkpt lat="41.89699901546238" lon="-0.30722282619337893"><ele>317.5</ele><time>2026-03-30T14:27:03Z</time></trkpt><trkpt lat="41.897185938834845" lon="-0.3074487657872461"><ele>318.0</ele><time>2026-03-30T14:27:04Z</time></trkpt><trkpt lat="41.89737242328967" lon="-0.3076764618772594"><ele>318.0</ele><time>2026-03-30T14:27:05Z</time></trkpt><trkpt lat="41.897558849630954" lon="-0.307901568776164"><ele>318.0</ele><time>2026-03-30T14:27:06Z</time></trkpt><trkpt lat="41.89774223460384" lon="-0.3081260978480056"><ele>318.5</ele><time>2026-03-30T14:27:07Z</time></trkpt><trkpt lat="41.897919788530906" lon="-0.3083513270542019"><ele>319.0</ele><time>2026-03-30T14:27:08Z</time></trkpt><trkpt lat="41.898098720193325" lon="-0.30857005879356375"><ele>319.0</ele><time>2026-03-30T14:27:09Z</time></trkpt><trkpt lat="41.89828197695254" lon="-0.3087860602162671"><ele>319.0</ele><time>2026-03-30T14:27:10Z</time></trkpt><trkpt lat="41.89846461283767" lon="-0.3090017873432232"><ele>320.0</ele><time>2026-03-30T14:27:11Z</time></trkpt><trkpt lat="41.89864470663599" lon="-0.30921763801849694"><ele>321.0</ele><time>2026-03-30T14:27:12Z</time></trkpt><trkpt lat="41.89882703810263" lon="-0.3094344935887287"><ele>321.0</ele><time>2026-03-30T14:27:13Z</time></trkpt><trkpt lat="41.8990088772101" lon="-0.3096523912008509"><ele>321.0</ele><time>2026-03-30T14:27:14Z</time></trkpt><trkpt lat="41.89918902820577" lon="-0.30987013738460795"><ele>320.5</ele><time>2026-03-30T14:27:15Z</time></trkpt><trkpt lat="41.89937085178754" lon="-0.310089619195914"><ele>320.0</ele><time>2026-03-30T14:27:16Z</time></trkpt><trkpt lat="41.899553014699876" lon="-0.31030757230704914"><ele>320.0</ele><time>2026-03-30T14:27:17Z</time></trkpt><trkpt lat="41.899735577194164" lon="-0.3105289058392461"><ele>320.0</ele><time>2026-03-30T14:27:18Z</time></trkpt><trkpt lat="41.89992151560069" lon="-0.3107558026380244"><ele>319.0</ele><time>2026-03-30T14:27:19Z</time></trkpt><trkpt lat="41.90011137214612" lon="-0.31098291545153306"><ele>318.0</ele><time>2026-03-30T14:27:20Z</time></trkpt><trkpt lat="41.90030574328897" lon="-0.31121319966829725"><ele>317.0</ele><time>2026-03-30T14:27:21Z</time></trkpt><trkpt lat="41.90049820747085" lon="-0.3114479740918729"><ele>316.0</ele><time>2026-03-30T14:27:22Z</time></trkpt><trkpt lat="41.90068883711136" lon="-0.3116818729548985"><ele>316.0</ele><time>2026-03-30T14:27:23Z</time></trkpt><trkpt lat="41.90087856970937" lon="-0.31191268969534813"><ele>316.0</ele><time>2026-03-30T14:27:24Z</time></trkpt><trkpt lat="41.90106830917542" lon="-0.3121384358339526"><ele>315.0</ele><time>2026-03-30T14:27:25Z</time></trkpt><trkpt lat="41.901256663717916" lon="-0.31236293397464365"><ele>314.0</ele><time>2026-03-30T14:27:26Z</time></trkpt><trkpt lat="41.90143951446313" lon="-0.31259134228345614"><ele>314.0</ele><time>2026-03-30T14:27:27Z</time></trkpt><trkpt lat="41.90162468953832" lon="-0.31281707216826254"><ele>314.0</ele><time>2026-03-30T14:27:28Z</time></trkpt><trkpt lat="41.90181013173879" lon="-0.3130338928041741"><ele>314.5</ele><time>2026-03-30T14:27:29Z</time></trkpt><trkpt lat="41.901994015754994" lon="-0.313251967099414"><ele>315.0</ele><time>2026-03-30T14:27:30Z</time></trkpt><trkpt lat="41.90217468487915" lon="-0.31347297177271083"><ele>315.0</ele><time>2026-03-30T14:27:31Z</time></trkpt><trkpt lat="41.9023579497468" lon="-0.3136890772013112"><ele>315.0</ele><time>2026-03-30T14:27:32Z</time></trkpt><trkpt lat="41.90254409653918" lon="-0.3139022452623498"><ele>314.0</ele><time>2026-03-30T14:27:33Z</time></trkpt><trkpt lat="41.90272301983384" lon="-0.31410929160373224"><ele>313.0</ele><time>2026-03-30T14:27:34Z</time></trkpt><trkpt lat="41.902897614189186" lon="-0.3143123907264652"><ele>313.0</ele><time>2026-03-30T14:27:35Z</time></trkpt><trkpt lat="41.903069911731784" lon="-0.31451746609019465"><ele>313.0</ele><time>2026-03-30T14:27:36Z</time></trkpt><trkpt lat="41.90324513895982" lon="-0.3147282253849797"><ele>312.5</ele><time>2026-03-30T14:27:37Z</time></trkpt><trkpt lat="41.903426973069955" lon="-0.31494755242244493"><ele>312.0</ele><time>2026-03-30T14:27:38Z</time></trkpt><trkpt lat="41.90360841981155" lon="-0.315166167740845"><ele>312.0</ele><time>2026-03-30T14:27:39Z</time></trkpt><trkpt lat="41.90378900721207" lon="-0.31538656357254136"><ele>312.0</ele><time>2026-03-30T14:27:40Z</time></trkpt><trkpt lat="41.90396764151206" lon="-0.3156077829988886"><ele>312.5</ele><time>2026-03-30T14:27:41Z</time></trkpt><trkpt lat="41.90414114338325" lon="-0.31582421235304275"><ele>313.0</ele><time>2026-03-30T14:27:42Z</time></trkpt><trkpt lat="41.904314283738856" lon="-0.31603160251815116"><ele>313.0</ele><time>2026-03-30T14:27:43Z</time></trkpt><trkpt lat="41.90448735791474" lon="-0.31623872743027837"><ele>313.0</ele><time>2026-03-30T14:27:44Z</time></trkpt><trkpt lat="41.90466220731924" lon="-0.3164473674019767"><ele>313.0</ele><time>2026-03-30T14:27:45Z</time></trkpt><trkpt lat="41.90483626567698" lon="-0.3166610895779479"><ele>313.0</ele><time>2026-03-30T14:27:46Z</time></trkpt><trkpt lat="41.9050039873662" lon="-0.31687243083479405"><ele>313.5</ele><time>2026-03-30T14:27:47Z</time></trkpt><trkpt lat="41.90517508907176" lon="-0.3170859669824257"><ele>314.0</ele><time>2026-03-30T14:27:48Z</time></trkpt><trkpt lat="41.90534610159196" lon="-0.31729890877210526"><ele>314.5</ele><time>2026-03-30T14:27:49Z</time></trkpt><trkpt lat="41.90552405745043" lon="-0.317510158601695"><ele>315.0</ele><time>2026-03-30T14:27:50Z</time></trkpt><trkpt lat="41.905698998333484" lon="-0.3177299590334596"><ele>315.0</ele><time>2026-03-30T14:27:51Z</time></trkpt><trkpt lat="41.9058773033281" lon="-0.3179541352716003"><ele>315.0</ele><time>2026-03-30T14:27:52Z</time></trkpt><trkpt lat="41.9060625457893" lon="-0.3181741890295619"><ele>315.0</ele><time>2026-03-30T14:27:53Z</time></trkpt><trkpt lat="41.906247178145705" lon="-0.31839728473573015"><ele>315.0</ele><time>2026-03-30T14:27:54Z</time></trkpt><trkpt lat="41.90642819658716" lon="-0.3186164024566986"><ele>315.0</ele><time>2026-03-30T14:27:55Z</time></trkpt><trkpt lat="41.906607988757116" lon="-0.31883359936959055"><ele>315.0</ele><time>2026-03-30T14:27:56Z</time></trkpt><trkpt lat="41.9067839598235" lon="-0.31905186439539696"><ele>315.5</ele><time>2026-03-30T14:27:57Z</time></trkpt><trkpt lat="41.90696024929059" lon="-0.3192685196225714"><ele>316.0</ele><time>2026-03-30T14:27:58Z</time></trkpt><trkpt lat="41.90713641481473" lon="-0.31947987986375576"><ele>316.0</ele><time>2026-03-30T14:27:59Z</time></trkpt><trkpt lat="41.90730964134721" lon="-0.3196863557037698"><ele>316.0</ele><time>2026-03-30T14:28:00Z</time></trkpt><trkpt lat="41.90748237040197" lon="-0.3198972453531124"><ele>316.5</ele><time>2026-03-30T14:28:01Z</time></trkpt><trkpt lat="41.90765392739" lon="-0.3201076162832269"><ele>317.0</ele><time>2026-03-30T14:28:02Z</time></trkpt><trkpt lat="41.907826156704765" lon="-0.3203134435379914"><ele>317.0</ele><time>2026-03-30T14:28:03Z</time></trkpt><trkpt lat="41.907994273497984" lon="-0.3205159714785678"><ele>317.0</ele><time>2026-03-30T14:28:04Z</time></trkpt><trkpt lat="41.908163450168104" lon="-0.32071972688714173"><ele>317.5</ele><time>2026-03-30T14:28:05Z</time></trkpt><trkpt lat="41.908335093916406" lon="-0.320918820370302"><ele>318.0</ele><time>2026-03-30T14:28:06Z</time></trkpt><trkpt lat="41.90850902892374" lon="-0.3211234652194587"><ele>318.0</ele><time>2026-03-30T14:28:07Z</time></trkpt><trkpt lat="41.90868155646713" lon="-0.3213350201628316"><ele>318.0</ele><time>2026-03-30T14:28:08Z</time></trkpt><trkpt lat="41.908852177255426" lon="-0.32154830088272435"><ele>319.0</ele><time>2026-03-30T14:28:09Z</time></trkpt><trkpt lat="41.90902770630197" lon="-0.3217564117849815"><ele>320.0</ele><time>2026-03-30T14:28:10Z</time></trkpt><trkpt lat="41.9092024941742" lon="-0.32196204726755645"><ele>319.5</ele><time>2026-03-30T14:28:11Z</time></trkpt><trkpt lat="41.90937472938874" lon="-0.3221756677916898"><ele>319.0</ele><time>2026-03-30T14:28:12Z</time></trkpt><trkpt lat="41.90954718621474" lon="-0.3223882736291256"><ele>319.0</ele><time>2026-03-30T14:28:13Z</time></trkpt><trkpt lat="41.90972349580427" lon="-0.32259776559919723"><ele>319.0</ele><time>2026-03-30T14:28:14Z</time></trkpt><trkpt lat="41.90990440783978" lon="-0.3228158665444882"><ele>319.0</ele><time>2026-03-30T14:28:15Z</time></trkpt><trkpt lat="41.91008818610439" lon="-0.3230312700013314"><ele>319.0</ele><time>2026-03-30T14:28:16Z</time></trkpt><trkpt lat="41.91027023095994" lon="-0.3232529386569936"><ele>317.5</ele><time>2026-03-30T14:28:17Z</time></trkpt><trkpt lat="41.910454298986394" lon="-0.3234778719062012"><ele>316.0</ele><time>2026-03-30T14:28:18Z</time></trkpt><trkpt lat="41.91063848524338" lon="-0.32370321347164416"><ele>315.0</ele><time>2026-03-30T14:28:19Z</time></trkpt><trkpt lat="41.910823519734045" lon="-0.3239360012237266"><ele>314.0</ele><time>2026-03-30T14:28:20Z</time></trkpt><trkpt lat="41.911019206983305" lon="-0.32415795836433137"><ele>314.0</ele><time>2026-03-30T14:28:21Z</time></trkpt><trkpt lat="41.911206579464" lon="-0.3243828252681537"><ele>314.0</ele><time>2026-03-30T14:28:22Z</time></trkpt><trkpt lat="41.91138634109728" lon="-0.3246062909614997"><ele>314.0</ele><time>2026-03-30T14:28:23Z</time></trkpt><trkpt lat="41.911570317286134" lon="-0.32483042616527114"><ele>314.0</ele><time>2026-03-30T14:28:24Z</time></trkpt><trkpt lat="41.9117531983917" lon="-0.3250468138566"><ele>314.0</ele><time>2026-03-30T14:28:25Z</time></trkpt><trkpt lat="41.91193462128406" lon="-0.3252698203564971"><ele>314.0</ele><time>2026-03-30T14:28:26Z</time></trkpt><trkpt lat="41.91211989973424" lon="-0.3254968914928765"><ele>314.5</ele><time>2026-03-30T14:28:27Z</time></trkpt><trkpt lat="41.912311067561824" lon="-0.32572225456305776"><ele>315.0</ele><time>2026-03-30T14:28:28Z</time></trkpt><trkpt lat="41.912506481204595" lon="-0.3259569812730223"><ele>314.5</ele><time>2026-03-30T14:28:29Z</time></trkpt><trkpt lat="41.91270031341868" lon="-0.3262009737876817"><ele>314.0</ele><time>2026-03-30T14:28:30Z</time></trkpt><trkpt lat="41.91287232788943" lon="-0.32640358538100983"><ele>314.0</ele><time>2026-03-30T14:28:31Z</time></trkpt><trkpt lat="41.91306493543079" lon="-0.32663869383543426"><ele>314.0</ele><time>2026-03-30T14:28:32Z</time></trkpt><trkpt lat="41.9132625242057" lon="-0.32687415553089955"><ele>313.5</ele><time>2026-03-30T14:28:33Z</time></trkpt><trkpt lat="41.913459642627124" lon="-0.32710325004967633"><ele>313.0</ele><time>2026-03-30T14:28:34Z</time></trkpt><trkpt lat="41.91365433868563" lon="-0.3273339390899711"><ele>313.0</ele><time>2026-03-30T14:28:35Z</time></trkpt><trkpt lat="41.91382138049937" lon="-0.3275527837076015"><ele>313.0</ele><time>2026-03-30T14:28:36Z</time></trkpt><trkpt lat="41.91400886014424" lon="-0.3277754132576778"><ele>313.0</ele><time>2026-03-30T14:28:37Z</time></trkpt><trkpt lat="41.91419274914954" lon="-0.3279993092522292"><ele>313.0</ele><time>2026-03-30T14:28:38Z</time></trkpt><trkpt lat="41.91436424463488" lon="-0.32820744629282406"><ele>313.0</ele><time>2026-03-30T14:28:39Z</time></trkpt><trkpt lat="41.914549766115265" lon="-0.32842237199066726"><ele>313.0</ele><time>2026-03-30T14:28:40Z</time></trkpt><trkpt lat="41.914729858969395" lon="-0.32864214125923213"><ele>313.0</ele><time>2026-03-30T14:28:41Z</time></trkpt><trkpt lat="41.91491157740815" lon="-0.3288621341592605"><ele>313.0</ele><time>2026-03-30T14:28:42Z</time></trkpt><trkpt lat="41.91509497633827" lon="-0.3290851505463112"><ele>313.0</ele><time>2026-03-30T14:28:43Z</time></trkpt><trkpt lat="41.915282740755316" lon="-0.32931128559165757"><ele>313.0</ele><time>2026-03-30T14:28:44Z</time></trkpt><trkpt lat="41.9154664986814" lon="-0.32954471125716966"><ele>314.5</ele><time>2026-03-30T14:28:45Z</time></trkpt><trkpt lat="41.91565992369781" lon="-0.32978377310137946"><ele>316.0</ele><time>2026-03-30T14:28:46Z</time></trkpt><trkpt lat="41.91586206967902" lon="-0.3300153388537418"><ele>314.0</ele><time>2026-03-30T14:28:47Z</time></trkpt><trkpt lat="41.91606071046496" lon="-0.33024586783478"><ele>312.0</ele><time>2026-03-30T14:28:48Z</time></trkpt><trkpt lat="41.91625164883974" lon="-0.33049420768647503"><ele>312.5</ele><time>2026-03-30T14:28:49Z</time></trkpt><trkpt lat="41.91645201012976" lon="-0.3307468322027777"><ele>313.0</ele><time>2026-03-30T14:28:50Z</time></trkpt><trkpt lat="41.91666259529303" lon="-0.3309839096877893"><ele>313.5</ele><time>2026-03-30T14:28:51Z</time></trkpt><trkpt lat="41.916866954916756" lon="-0.331224314693789"><ele>314.0</ele><time>2026-03-30T14:28:52Z</time></trkpt><trkpt lat="41.917068024064044" lon="-0.33147331285241394"><ele>315.0</ele><time>2026-03-30T14:28:53Z</time></trkpt><trkpt lat="41.917278152789855" lon="-0.3317154289576478"><ele>316.0</ele><time>2026-03-30T14:28:54Z</time></trkpt><trkpt lat="41.917490591361734" lon="-0.33194506312725514"><ele>315.5</ele><time>2026-03-30T14:28:55Z</time></trkpt><trkpt lat="41.91769450367946" lon="-0.3321839874306013"><ele>315.0</ele><time>2026-03-30T14:28:56Z</time></trkpt><trkpt lat="41.91789777221388" lon="-0.3324365453232122"><ele>315.0</ele><time>2026-03-30T14:28:57Z</time></trkpt><trkpt lat="41.91811469829166" lon="-0.33269343183941075"><ele>315.0</ele><time>2026-03-30T14:28:58Z</time></trkpt><trkpt lat="41.91832860962889" lon="-0.3329418616377148"><ele>314.5</ele><time>2026-03-30T14:28:59Z</time></trkpt><trkpt lat="41.918536660550274" lon="-0.333194183372852"><ele>314.0</ele><time>2026-03-30T14:29:00Z</time></trkpt><trkpt lat="41.91874137552488" lon="-0.3334470703708471"><ele>314.0</ele><time>2026-03-30T14:29:01Z</time></trkpt><trkpt lat="41.918944004114046" lon="-0.33368975502880294"><ele>314.0</ele><time>2026-03-30T14:29:02Z</time></trkpt><trkpt lat="41.919140103560935" lon="-0.3339325627017795"><ele>314.0</ele><time>2026-03-30T14:29:03Z</time></trkpt><trkpt lat="41.919337772537446" lon="-0.3341773166839387"><ele>314.0</ele><time>2026-03-30T14:29:04Z</time></trkpt><trkpt lat="41.91952705222864" lon="-0.33441035191978674"><ele>314.0</ele><time>2026-03-30T14:29:05Z</time></trkpt><trkpt lat="41.919716582422545" lon="-0.3346354981072142"><ele>314.0</ele><time>2026-03-30T14:29:06Z</time></trkpt><trkpt lat="41.91990182316361" lon="-0.3348625759615244"><ele>315.5</ele><time>2026-03-30T14:29:07Z</time></trkpt><trkpt lat="41.920088290474354" lon="-0.335089146586937"><ele>317.0</ele><time>2026-03-30T14:29:08Z</time></trkpt><trkpt lat="41.92027197845017" lon="-0.3353205197056775"><ele>317.5</ele><time>2026-03-30T14:29:09Z</time></trkpt><trkpt lat="41.92045865195787" lon="-0.33555546349617477"><ele>318.0</ele><time>2026-03-30T14:29:10Z</time></trkpt><trkpt lat="41.92064630672242" lon="-0.33579369142553633"><ele>318.0</ele><time>2026-03-30T14:29:11Z</time></trkpt><trkpt lat="41.92084079183122" lon="-0.33602211381609265"><ele>318.0</ele><time>2026-03-30T14:29:12Z</time></trkpt><trkpt lat="41.92103576347859" lon="-0.3362489758162834"><ele>318.0</ele><time>2026-03-30T14:29:13Z</time></trkpt><trkpt lat="41.921223542344215" lon="-0.3364866457367677"><ele>318.0</ele><time>2026-03-30T14:29:14Z</time></trkpt><trkpt lat="41.921417800844466" lon="-0.3367238042791437"><ele>318.0</ele><time>2026-03-30T14:29:15Z</time></trkpt><trkpt lat="41.92161452398463" lon="-0.33696383589138945"><ele>318.0</ele><time>2026-03-30T14:29:16Z</time></trkpt><trkpt lat="41.921811759667065" lon="-0.337198068472402"><ele>318.5</ele><time>2026-03-30T14:29:17Z</time></trkpt><trkpt lat="41.92200679175859" lon="-0.3374349626136509"><ele>319.0</ele><time>2026-03-30T14:29:18Z</time></trkpt><trkpt lat="41.92220120303368" lon="-0.33767034573661436"><ele>319.0</ele><time>2026-03-30T14:29:19Z</time></trkpt><trkpt lat="41.92239338164692" lon="-0.337903558281942"><ele>319.0</ele><time>2026-03-30T14:29:20Z</time></trkpt><trkpt lat="41.92258252726491" lon="-0.3381318068513062"><ele>318.0</ele><time>2026-03-30T14:29:21Z</time></trkpt><trkpt lat="41.92277053165774" lon="-0.3383536841239922"><ele>317.0</ele><time>2026-03-30T14:29:22Z</time></trkpt><trkpt lat="41.92295554278368" lon="-0.3385711369952346"><ele>317.0</ele><time>2026-03-30T14:29:23Z</time></trkpt><trkpt lat="41.923138441539976" lon="-0.3387849409265897"><ele>317.0</ele><time>2026-03-30T14:29:24Z</time></trkpt><trkpt lat="41.92331952396589" lon="-0.3389994979316092"><ele>317.0</ele><time>2026-03-30T14:29:25Z</time></trkpt><trkpt lat="41.923496599871875" lon="-0.3392093294509657"><ele>317.0</ele><time>2026-03-30T14:29:26Z</time></trkpt><trkpt lat="41.92367135432581" lon="-0.33942227957830234"><ele>317.0</ele><time>2026-03-30T14:29:27Z</time></trkpt><trkpt lat="41.92384857156031" lon="-0.3396332744144528"><ele>317.0</ele><time>2026-03-30T14:29:28Z</time></trkpt><trkpt lat="41.92402501900511" lon="-0.3398409404750588"><ele>317.5</ele><time>2026-03-30T14:29:29Z</time></trkpt><trkpt lat="41.92420562280621" lon="-0.34005635961731184"><ele>318.0</ele><time>2026-03-30T14:29:30Z</time></trkpt><trkpt lat="41.92439075184609" lon="-0.3402772099847732"><ele>318.0</ele><time>2026-03-30T14:29:31Z</time></trkpt><trkpt lat="41.92457659742997" lon="-0.3404955541084371"><ele>318.0</ele><time>2026-03-30T14:29:32Z</time></trkpt><trkpt lat="41.92476496650917" lon="-0.3407171299018744"><ele>318.0</ele><time>2026-03-30T14:29:33Z</time></trkpt><trkpt lat="41.92495260577691" lon="-0.34094311005422057"><ele>318.0</ele><time>2026-03-30T14:29:34Z</time></trkpt><trkpt lat="41.925139889078984" lon="-0.34117100449228743"><ele>317.0</ele><time>2026-03-30T14:29:35Z</time></trkpt><trkpt lat="41.92532668859268" lon="-0.34139766998155735"><ele>316.0</ele><time>2026-03-30T14:29:36Z</time></trkpt><trkpt lat="41.925511559828884" lon="-0.34161956348410555"><ele>316.0</ele><time>2026-03-30T14:29:37Z</time></trkpt><trkpt lat="41.92569748604617" lon="-0.34184457227267917"><ele>316.0</ele><time>2026-03-30T14:29:38Z</time></trkpt><trkpt lat="41.925880115452095" lon="-0.34206672862984744"><ele>314.0</ele><time>2026-03-30T14:29:39Z</time></trkpt><trkpt lat="41.926064467739586" lon="-0.3422891918910329"><ele>312.0</ele><time>2026-03-30T14:29:40Z</time></trkpt><trkpt lat="41.92624431847992" lon="-0.3425117474087928"><ele>312.0</ele><time>2026-03-30T14:29:41Z</time></trkpt><trkpt lat="41.926426269566235" lon="-0.3427365077947795"><ele>312.0</ele><time>2026-03-30T14:29:42Z</time></trkpt><trkpt lat="41.92660481034005" lon="-0.3429496315047361"><ele>312.5</ele><time>2026-03-30T14:29:43Z</time></trkpt><trkpt lat="41.92678280643193" lon="-0.3431659974922963"><ele>313.0</ele><time>2026-03-30T14:29:44Z</time></trkpt><trkpt lat="41.9269575933654" lon="-0.34338302128037335"><ele>313.0</ele><time>2026-03-30T14:29:45Z</time></trkpt><trkpt lat="41.927141092221866" lon="-0.3435979206730252"><ele>313.0</ele><time>2026-03-30T14:29:46Z</time></trkpt><trkpt lat="41.92732071655132" lon="-0.34381603550025025"><ele>313.0</ele><time>2026-03-30T14:29:47Z</time></trkpt><trkpt lat="41.92749638800688" lon="-0.34402772719842"><ele>313.0</ele><time>2026-03-30T14:29:48Z</time></trkpt><trkpt lat="41.92767252075516" lon="-0.34424230301535774"><ele>313.0</ele><time>2026-03-30T14:29:49Z</time></trkpt><trkpt lat="41.9278467151745" lon="-0.3444572884890339"><ele>313.0</ele><time>2026-03-30T14:29:50Z</time></trkpt><trkpt lat="41.92802425475936" lon="-0.34467692130058936"><ele>313.0</ele><time>2026-03-30T14:29:51Z</time></trkpt><trkpt lat="41.928209295196964" lon="-0.3449023106903563"><ele>313.0</ele><time>2026-03-30T14:29:52Z</time></trkpt><trkpt lat="41.928400927045566" lon="-0.34512928372459145"><ele>313.0</ele><time>2026-03-30T14:29:53Z</time></trkpt><trkpt lat="41.92858954680264" lon="-0.3453568380458788"><ele>313.0</ele><time>2026-03-30T14:29:54Z</time></trkpt><trkpt lat="41.92877353738162" lon="-0.34558695120848915"><ele>313.5</ele><time>2026-03-30T14:29:55Z</time></trkpt><trkpt lat="41.92896171034944" lon="-0.3458204798683565"><ele>314.0</ele><time>2026-03-30T14:29:56Z</time></trkpt><trkpt lat="41.92915495163219" lon="-0.3460512766034849"><ele>315.0</ele><time>2026-03-30T14:29:57Z</time></trkpt><trkpt lat="41.929346867500286" lon="-0.34627778263693815"><ele>316.0</ele><time>2026-03-30T14:29:58Z</time></trkpt><trkpt lat="41.92953107276152" lon="-0.34650814315064066"><ele>316.0</ele><time>2026-03-30T14:29:59Z</time></trkpt><trkpt lat="41.92971601970493" lon="-0.3467411992415526"><ele>316.0</ele><time>2026-03-30T14:30:00Z</time></trkpt><trkpt lat="41.929908346558285" lon="-0.3469678315997571"><ele>316.5</ele><time>2026-03-30T14:30:01Z</time></trkpt><trkpt lat="41.93009591815883" lon="-0.3471945174651833"><ele>317.0</ele><time>2026-03-30T14:30:02Z</time></trkpt><trkpt lat="41.93028408794769" lon="-0.3474251301128801"><ele>317.0</ele><time>2026-03-30T14:30:03Z</time></trkpt><trkpt lat="41.93047222733598" lon="-0.34765322914617885"><ele>317.0</ele><time>2026-03-30T14:30:04Z</time></trkpt><trkpt lat="41.930657692304706" lon="-0.3478906639250702"><ele>316.5</ele><time>2026-03-30T14:30:05Z</time></trkpt><trkpt lat="41.93083565459195" lon="-0.3481346142144335"><ele>316.0</ele><time>2026-03-30T14:30:06Z</time></trkpt><trkpt lat="41.93101053276077" lon="-0.3483810774587935"><ele>316.0</ele><time>2026-03-30T14:30:07Z</time></trkpt><trkpt lat="41.931178431999626" lon="-0.3486319784725279"><ele>316.0</ele><time>2026-03-30T14:30:08Z</time></trkpt><trkpt lat="41.93132900925988" lon="-0.34889073022248585"><ele>316.5</ele><time>2026-03-30T14:30:09Z</time></trkpt><trkpt lat="41.931469344491695" lon="-0.3491576407450484"><ele>317.0</ele><time>2026-03-30T14:30:10Z</time></trkpt><trkpt lat="41.93159875230587" lon="-0.3494302538148501"><ele>317.0</ele><time>2026-03-30T14:30:11Z</time></trkpt><trkpt lat="41.93172140303373" lon="-0.3496969316904449"><ele>317.0</ele><time>2026-03-30T14:30:12Z</time></trkpt><trkpt lat="41.931835526188145" lon="-0.3499649032159865"><ele>317.5</ele><time>2026-03-30T14:30:13Z</time></trkpt><trkpt lat="41.93193812293135" lon="-0.3502354413548679"><ele>318.0</ele><time>2026-03-30T14:30:14Z</time></trkpt><trkpt lat="41.93203638911534" lon="-0.3505113172244778"><ele>317.5</ele><time>2026-03-30T14:30:15Z</time></trkpt><trkpt lat="41.9321355901858" lon="-0.3507856842373873"><ele>317.0</ele><time>2026-03-30T14:30:16Z</time></trkpt><trkpt lat="41.93222590513481" lon="-0.35106735378705684"><ele>317.0</ele><time>2026-03-30T14:30:17Z</time></trkpt><trkpt lat="41.932312477106024" lon="-0.3513621743691428"><ele>317.0</ele><time>2026-03-30T14:30:18Z</time></trkpt><trkpt lat="41.93240162330397" lon="-0.35165912520585796"><ele>315.5</ele><time>2026-03-30T14:30:19Z</time></trkpt><trkpt lat="41.932493181578806" lon="-0.35195480187481937"><ele>314.0</ele><time>2026-03-30T14:30:20Z</time></trkpt><trkpt lat="41.93258551595559" lon="-0.3522446429751062"><ele>313.0</ele><time>2026-03-30T14:30:21Z</time></trkpt><trkpt lat="41.93267542530459" lon="-0.35252752031899587"><ele>312.0</ele><time>2026-03-30T14:30:22Z</time></trkpt><trkpt lat="41.932761716138124" lon="-0.35281320654132653"><ele>311.5</ele><time>2026-03-30T14:30:23Z</time></trkpt><trkpt lat="41.93285173485082" lon="-0.35309335817980675"><ele>311.0</ele><time>2026-03-30T14:30:24Z</time></trkpt><trkpt lat="41.9329433651613" lon="-0.35338032383543344"><ele>311.0</ele><time>2026-03-30T14:30:25Z</time></trkpt><trkpt lat="41.93303230214593" lon="-0.3536639853721743"><ele>311.0</ele><time>2026-03-30T14:30:26Z</time></trkpt><trkpt lat="41.93312175443465" lon="-0.35395567504046266"><ele>312.5</ele><time>2026-03-30T14:30:27Z</time></trkpt><trkpt lat="41.93321781431466" lon="-0.35425917590841066"><ele>314.0</ele><time>2026-03-30T14:30:28Z</time></trkpt><trkpt lat="41.933315371932316" lon="-0.3545692711495604"><ele>315.5</ele><time>2026-03-30T14:30:29Z</time></trkpt><trkpt lat="41.93341031985746" lon="-0.3548773830936144"><ele>317.0</ele><time>2026-03-30T14:30:30Z</time></trkpt><trkpt lat="41.93350724633478" lon="-0.3551842252656753"><ele>317.0</ele><time>2026-03-30T14:30:31Z</time></trkpt><trkpt lat="41.933606522650564" lon="-0.3554915927845109"><ele>317.0</ele><time>2026-03-30T14:30:32Z</time></trkpt><trkpt lat="41.93370516412252" lon="-0.3558011454407639"><ele>317.0</ele><time>2026-03-30T14:30:33Z</time></trkpt><trkpt lat="41.93380352388073" lon="-0.35611323545404"><ele>317.0</ele><time>2026-03-30T14:30:34Z</time></trkpt><trkpt lat="41.93390072596894" lon="-0.35644174678228874"><ele>317.5</ele><time>2026-03-30T14:30:35Z</time></trkpt><trkpt lat="41.93400495026855" lon="-0.35677848709168175"><ele>318.0</ele><time>2026-03-30T14:30:36Z</time></trkpt><trkpt lat="41.93410834426498" lon="-0.3571067161414962"><ele>318.0</ele><time>2026-03-30T14:30:37Z</time></trkpt><trkpt lat="41.93420909947263" lon="-0.3574262207584914"><ele>318.0</ele><time>2026-03-30T14:30:38Z</time></trkpt><trkpt lat="41.93430577807061" lon="-0.3577391056806086"><ele>317.5</ele><time>2026-03-30T14:30:39Z</time></trkpt><trkpt lat="41.934401849408005" lon="-0.35804565055706816"><ele>317.0</ele><time>2026-03-30T14:30:40Z</time></trkpt><trkpt lat="41.93449683817975" lon="-0.3583413717951514"><ele>317.0</ele><time>2026-03-30T14:30:41Z</time></trkpt><trkpt lat="41.93458976656413" lon="-0.35863320253324615"><ele>317.0</ele><time>2026-03-30T14:30:42Z</time></trkpt><trkpt lat="41.93467773909257" lon="-0.3589251423525787"><ele>317.0</ele><time>2026-03-30T14:30:43Z</time></trkpt><trkpt lat="41.93476430117123" lon="-0.35921774652100896"><ele>317.0</ele><time>2026-03-30T14:30:44Z</time></trkpt><trkpt lat="41.93485412920232" lon="-0.3594995450941634"><ele>317.0</ele><time>2026-03-30T14:30:45Z</time></trkpt><trkpt lat="41.934942472915196" lon="-0.3597799849416249"><ele>317.0</ele><time>2026-03-30T14:30:46Z</time></trkpt><trkpt lat="41.93502762740989" lon="-0.36005495807069243"><ele>317.0</ele><time>2026-03-30T14:30:47Z</time></trkpt><trkpt lat="41.93511232879833" lon="-0.3603283820067093"><ele>317.5</ele><time>2026-03-30T14:30:48Z</time></trkpt><trkpt lat="41.93520207088796" lon="-0.3606080483763566"><ele>318.0</ele><time>2026-03-30T14:30:49Z</time></trkpt><trkpt lat="41.935293803511" lon="-0.3608927545626723"><ele>318.0</ele><time>2026-03-30T14:30:50Z</time></trkpt><trkpt lat="41.93538408813963" lon="-0.3611864686209982"><ele>318.0</ele><time>2026-03-30T14:30:51Z</time></trkpt><trkpt lat="41.93547890020095" lon="-0.3614847808893218"><ele>318.0</ele><time>2026-03-30T14:30:52Z</time></trkpt><trkpt lat="41.93557003870039" lon="-0.3617821582872388"><ele>318.0</ele><time>2026-03-30T14:30:53Z</time></trkpt><trkpt lat="41.93565990600774" lon="-0.3620705247379143"><ele>318.0</ele><time>2026-03-30T14:30:54Z</time></trkpt><trkpt lat="41.935744157974405" lon="-0.362337386168284"><ele>318.0</ele><time>2026-03-30T14:30:55Z</time></trkpt><trkpt lat="41.935822525867025" lon="-0.36259274614980025"><ele>318.0</ele><time>2026-03-30T14:30:56Z</time></trkpt><trkpt lat="41.93589714195433" lon="-0.3628370647195474"><ele>318.3333333333333</ele><time>2026-03-30T14:30:57Z</time></trkpt><trkpt lat="41.93597512581964" lon="-0.3630691063942759"><ele>318.66666666666663</ele><time>2026-03-30T14:30:58Z</time></trkpt><trkpt lat="41.93604413705306" lon="-0.36327559711151536"><ele>319.0</ele><time>2026-03-30T14:30:59Z</time></trkpt><trkpt lat="41.93611722449741" lon="-0.36347528285228364"><ele>319.0</ele><time>2026-03-30T14:31:00Z</time></trkpt><trkpt lat="41.936204098623385" lon="-0.36362479058139563"><ele>319.0</ele><time>2026-03-30T14:31:01Z</time></trkpt><trkpt lat="41.93629440560122" lon="-0.3637179442275815"><ele>319.0</ele><time>2026-03-30T14:31:02Z</time></trkpt><trkpt lat="41.93638641229912" lon="-0.36377402369742173"><ele>319.0</ele><time>2026-03-30T14:31:03Z</time></trkpt><trkpt lat="41.936488276551394" lon="-0.36380734599775366"><ele>319.0</ele><time>2026-03-30T14:31:04Z</time></trkpt><trkpt lat="41.936604210921" lon="-0.36380434657845945"><ele>319.0</ele><time>2026-03-30T14:31:05Z</time></trkpt><trkpt lat="41.936718835764495" lon="-0.36382767837065894"><ele>319.0</ele><time>2026-03-30T14:31:06Z</time></trkpt><trkpt lat="41.9368164625182" lon="-0.36392242512533857"><ele>319.0</ele><time>2026-03-30T14:31:07Z</time></trkpt><trkpt lat="41.936926153057875" lon="-0.3640390444937361"><ele>320.0</ele><time>2026-03-30T14:31:08Z</time></trkpt><trkpt lat="41.93707031799805" lon="-0.3641243904050758"><ele>321.0</ele><time>2026-03-30T14:31:09Z</time></trkpt><trkpt lat="41.93725400988919" lon="-0.3641489415728847"><ele>322.0</ele><time>2026-03-30T14:31:10Z</time></trkpt><trkpt lat="41.93744949850667" lon="-0.36413338968377407"><ele>322.0</ele><time>2026-03-30T14:31:11Z</time></trkpt><trkpt lat="41.937658578198295" lon="-0.364121239831751"><ele>322.0</ele><time>2026-03-30T14:31:12Z</time></trkpt><trkpt lat="41.93783707960625" lon="-0.36412859248621665"><ele>322.0</ele><time>2026-03-30T14:31:13Z</time></trkpt><trkpt lat="41.93800380790022" lon="-0.3641359225460871"><ele>322.0</ele><time>2026-03-30T14:31:14Z</time></trkpt><trkpt lat="41.938172090026434" lon="-0.3641358248402944"><ele>322.0</ele><time>2026-03-30T14:31:15Z</time></trkpt><trkpt lat="41.938333977637626" lon="-0.3641354849550112"><ele>322.0</ele><time>2026-03-30T14:31:16Z</time></trkpt><trkpt lat="41.93849236839679" lon="-0.36413895986519784"><ele>322.25</ele><time>2026-03-30T14:31:17Z</time></trkpt><trkpt lat="41.938645281565165" lon="-0.3641416874820813"><ele>322.5</ele><time>2026-03-30T14:31:18Z</time></trkpt><trkpt lat="41.93879107027047" lon="-0.3641496904775544"><ele>322.75</ele><time>2026-03-30T14:31:19Z</time></trkpt><trkpt lat="41.9389245072415" lon="-0.36415412027649097"><ele>323.0</ele><time>2026-03-30T14:31:20Z</time></trkpt><trkpt lat="41.93905078243333" lon="-0.3641438809712882"><ele>323.0</ele><time>2026-03-30T14:31:21Z</time></trkpt><trkpt lat="41.93915517237597" lon="-0.36410533963933667"><ele>323.0</ele><time>2026-03-30T14:31:22Z</time></trkpt><trkpt lat="41.93925051995249" lon="-0.36404928276463067"><ele>323.0</ele><time>2026-03-30T14:31:23Z</time></trkpt><trkpt lat="41.93933184025041" lon="-0.3639908384315858"><ele>323.0</ele><time>2026-03-30T14:31:24Z</time></trkpt><trkpt lat="41.93942104470373" lon="-0.36392465279161507"><ele>323.0</ele><time>2026-03-30T14:31:25Z</time></trkpt><trkpt lat="41.93950291003636" lon="-0.3638746139079549"><ele>323.2</ele><time>2026-03-30T14:31:26Z</time></trkpt><trkpt lat="41.939603477284265" lon="-0.36387247242156745"><ele>323.4</ele><time>2026-03-30T14:31:27Z</time></trkpt><trkpt lat="41.93968705119278" lon="-0.3639244305932957"><ele>323.59999999999997</ele><time>2026-03-30T14:31:28Z</time></trkpt><trkpt lat="41.939743772324114" lon="-0.3640317090262004"><ele>323.79999999999995</ele><time>2026-03-30T14:31:29Z</time></trkpt><trkpt lat="41.93976133899902" lon="-0.3641623261872983"><ele>324.0</ele><time>2026-03-30T14:31:30Z</time></trkpt><trkpt lat="41.93974449224265" lon="-0.3642901420206399"><ele>324.0</ele><time>2026-03-30T14:31:31Z</time></trkpt><trkpt lat="41.9397028603192" lon="-0.36438976136528317"><ele>324.0</ele><time>2026-03-30T14:31:32Z</time></trkpt><trkpt lat="41.93961872175735" lon="-0.3644878238254211"><ele>324.0</ele><time>2026-03-30T14:31:33Z</time></trkpt><trkpt lat="41.939526389801856" lon="-0.3646349656673986"><ele>324.0</ele><time>2026-03-30T14:31:34Z</time></trkpt><trkpt lat="41.93945214502285" lon="-0.36481663400813025"><ele>324.0</ele><time>2026-03-30T14:31:35Z</time></trkpt><trkpt lat="41.93939397382759" lon="-0.36501691860566393"><ele>324.0</ele><time>2026-03-30T14:31:36Z</time></trkpt><trkpt lat="41.93933851302679" lon="-0.3652005913950204"><ele>324.0</ele><time>2026-03-30T14:31:37Z</time></trkpt><trkpt lat="41.939290970029425" lon="-0.3653841658781616"><ele>324.25</ele><time>2026-03-30T14:31:38Z</time></trkpt><trkpt lat="41.93924427802496" lon="-0.36555835643196577"><ele>324.5</ele><time>2026-03-30T14:31:39Z</time></trkpt><trkpt lat="41.93919545068043" lon="-0.36574076841907366"><ele>324.75</ele><time>2026-03-30T14:31:40Z</time></trkpt><trkpt lat="41.93914342808257" lon="-0.36590768448098093"><ele>325.0</ele><time>2026-03-30T14:31:41Z</time></trkpt><trkpt lat="41.939093779963414" lon="-0.3660684000900773"><ele>324.5</ele><time>2026-03-30T14:31:42Z</time></trkpt><trkpt lat="41.93904628488694" lon="-0.36623988207067876"><ele>324.0</ele><time>2026-03-30T14:31:43Z</time></trkpt><trkpt lat="41.93899825999303" lon="-0.3664113116689702"><ele>323.5</ele><time>2026-03-30T14:31:44Z</time></trkpt><trkpt lat="41.938946291689106" lon="-0.3665884796923677"><ele>323.0</ele><time>2026-03-30T14:31:45Z</time></trkpt><trkpt lat="41.93889626399398" lon="-0.36676866743391756"><ele>322.75</ele><time>2026-03-30T14:31:46Z</time></trkpt><trkpt lat="41.93884517888229" lon="-0.36694816887733284"><ele>322.5</ele><time>2026-03-30T14:31:47Z</time></trkpt><trkpt lat="41.938795260676" lon="-0.3671263556450264"><ele>322.25</ele><time>2026-03-30T14:31:48Z</time></trkpt><trkpt lat="41.938735751654434" lon="-0.3673308879263768"><ele>322.0</ele><time>2026-03-30T14:31:49Z</time></trkpt><trkpt lat="41.93868082483676" lon="-0.3675241000844229"><ele>322.0</ele><time>2026-03-30T14:31:50Z</time></trkpt><trkpt lat="41.93862418339361" lon="-0.3677373929975776"><ele>322.0</ele><time>2026-03-30T14:31:51Z</time></trkpt><trkpt lat="41.93856345623759" lon="-0.3679292057852429"><ele>322.0</ele><time>2026-03-30T14:31:52Z</time></trkpt><trkpt lat="41.93850600889514" lon="-0.3681275532658143"><ele>321.66666666666663</ele><time>2026-03-30T14:31:53Z</time></trkpt><trkpt lat="41.938446895064" lon="-0.36833228928275435"><ele>321.3333333333333</ele><time>2026-03-30T14:31:54Z</time></trkpt><trkpt lat="41.93839230606649" lon="-0.3685350306926139"><ele>321.0</ele><time>2026-03-30T14:31:55Z</time></trkpt><trkpt lat="41.93833579997102" lon="-0.3687300914470817"><ele>321.0</ele><time>2026-03-30T14:31:56Z</time></trkpt><trkpt lat="41.938281397005106" lon="-0.3689111996498006"><ele>321.0</ele><time>2026-03-30T14:31:57Z</time></trkpt><trkpt lat="41.9382309158826" lon="-0.36908604012947477"><ele>321.0</ele><time>2026-03-30T14:31:58Z</time></trkpt><trkpt lat="41.93818345019942" lon="-0.36925478631508796"><ele>321.0</ele><time>2026-03-30T14:31:59Z</time></trkpt><trkpt lat="41.93813938772771" lon="-0.3694186235561777"><ele>321.0</ele><time>2026-03-30T14:32:00Z</time></trkpt><trkpt lat="41.93809301266504" lon="-0.36959457523063954"><ele>321.0</ele><time>2026-03-30T14:32:01Z</time></trkpt><trkpt lat="41.93804351739708" lon="-0.3697684351712296"><ele>321.0</ele><time>2026-03-30T14:32:02Z</time></trkpt><trkpt lat="41.93800054509502" lon="-0.3699556592445164"><ele>321.0</ele><time>2026-03-30T14:32:03Z</time></trkpt><trkpt lat="41.93800289648057" lon="-0.3701674355750457"><ele>321.0</ele><time>2026-03-30T14:32:04Z</time></trkpt><trkpt lat="41.938019226983236" lon="-0.37038554618643443"><ele>321.0</ele><time>2026-03-30T14:32:05Z</time></trkpt><trkpt lat="41.93802077526791" lon="-0.3706086240469259"><ele>321.0</ele><time>2026-03-30T14:32:06Z</time></trkpt><trkpt lat="41.93802339210039" lon="-0.3708232413045567"><ele>320.75</ele><time>2026-03-30T14:32:07Z</time></trkpt><trkpt lat="41.93803479622087" lon="-0.371014578838354"><ele>320.5</ele><time>2026-03-30T14:32:08Z</time></trkpt><trkpt lat="41.93805431310357" lon="-0.37120297205819097"><ele>320.25</ele><time>2026-03-30T14:32:09Z</time></trkpt><trkpt lat="41.938115052134805" lon="-0.37138130856280815"><ele>320.0</ele><time>2026-03-30T14:32:10Z</time></trkpt><trkpt lat="41.93818524058066" lon="-0.3715723825859065"><ele>320.0</ele><time>2026-03-30T14:32:11Z</time></trkpt><trkpt lat="41.93825348698654" lon="-0.3717773574421754"><ele>320.0</ele><time>2026-03-30T14:32:12Z</time></trkpt><trkpt lat="41.93832540066174" lon="-0.37198948291392697"><ele>320.0</ele><time>2026-03-30T14:32:13Z</time></trkpt><trkpt lat="41.93839402839499" lon="-0.37220168089952416"><ele>321.0</ele><time>2026-03-30T14:32:14Z</time></trkpt><trkpt lat="41.938467017490424" lon="-0.37241951487262775"><ele>322.0</ele><time>2026-03-30T14:32:15Z</time></trkpt><trkpt lat="41.93854294757748" lon="-0.3726602814695193"><ele>323.0</ele><time>2026-03-30T14:32:16Z</time></trkpt><trkpt lat="41.938624149882244" lon="-0.37291830167811274"><ele>322.6666666666667</ele><time>2026-03-30T14:32:17Z</time></trkpt><trkpt lat="41.938697306046464" lon="-0.3731461807783161"><ele>322.3333333333333</ele><time>2026-03-30T14:32:18Z</time></trkpt><trkpt lat="41.938766834516656" lon="-0.3733564611157699"><ele>322.0</ele><time>2026-03-30T14:32:19Z</time></trkpt><trkpt lat="41.93883418972177" lon="-0.3735696729987449"><ele>322.0</ele><time>2026-03-30T14:32:20Z</time></trkpt><trkpt lat="41.938898264000834" lon="-0.3737776125718839"><ele>322.0</ele><time>2026-03-30T14:32:21Z</time></trkpt><trkpt lat="41.93896711310969" lon="-0.37395132007609616"><ele>322.0</ele><time>2026-03-30T14:32:22Z</time></trkpt><trkpt lat="41.9390224625656" lon="-0.3741225644537639"><ele>322.5</ele><time>2026-03-30T14:32:23Z</time></trkpt><trkpt lat="41.93907732397535" lon="-0.3742992245151749"><ele>323.0</ele><time>2026-03-30T14:32:24Z</time></trkpt><trkpt lat="41.93913387588008" lon="-0.37447745248600844"><ele>323.5</ele><time>2026-03-30T14:32:25Z</time></trkpt><trkpt lat="41.939192238217196" lon="-0.3746610367665193"><ele>324.0</ele><time>2026-03-30T14:32:26Z</time></trkpt><trkpt lat="41.93925766719095" lon="-0.37487053022023503"><ele>324.0</ele><time>2026-03-30T14:32:27Z</time></trkpt><trkpt lat="41.93932964468891" lon="-0.3751024413389299"><ele>324.0</ele><time>2026-03-30T14:32:28Z</time></trkpt><trkpt lat="41.939402862993205" lon="-0.3753295005045546"><ele>324.0</ele><time>2026-03-30T14:32:29Z</time></trkpt><trkpt lat="41.93947697240758" lon="-0.3755573211506756"><ele>323.0</ele><time>2026-03-30T14:32:30Z</time></trkpt><trkpt lat="41.93954703098878" lon="-0.3757920784476608"><ele>322.0</ele><time>2026-03-30T14:32:31Z</time></trkpt><trkpt lat="41.939620607907706" lon="-0.37603853923396413"><ele>321.0</ele><time>2026-03-30T14:32:32Z</time></trkpt><trkpt lat="41.9397014225291" lon="-0.3762966277854943"><ele>321.0</ele><time>2026-03-30T14:32:33Z</time></trkpt><trkpt lat="41.93978435540502" lon="-0.3765438173592984"><ele>321.0</ele><time>2026-03-30T14:32:34Z</time></trkpt><trkpt lat="41.9398713249767" lon="-0.37678674177637583"><ele>321.0</ele><time>2026-03-30T14:32:35Z</time></trkpt><trkpt lat="41.93994703454325" lon="-0.3770314100450552"><ele>320.6666666666667</ele><time>2026-03-30T14:32:36Z</time></trkpt><trkpt lat="41.94002052346098" lon="-0.3772727664147459"><ele>320.33333333333337</ele><time>2026-03-30T14:32:37Z</time></trkpt><trkpt lat="41.94010086805595" lon="-0.3775286473259896"><ele>320.0</ele><time>2026-03-30T14:32:38Z</time></trkpt><trkpt lat="41.9401859769223" lon="-0.3778055649427189"><ele>321.0</ele><time>2026-03-30T14:32:39Z</time></trkpt><trkpt lat="41.940274008010896" lon="-0.3780879461766475"><ele>322.0</ele><time>2026-03-30T14:32:40Z</time></trkpt><trkpt lat="41.94036300703691" lon="-0.3783749206220128"><ele>322.0</ele><time>2026-03-30T14:32:41Z</time></trkpt><trkpt lat="41.94045271920213" lon="-0.378663539779365"><ele>322.0</ele><time>2026-03-30T14:32:42Z</time></trkpt><trkpt lat="41.940539358752474" lon="-0.37896805353436414"><ele>321.5</ele><time>2026-03-30T14:32:43Z</time></trkpt><trkpt lat="41.94062582129004" lon="-0.3792762417116098"><ele>321.0</ele><time>2026-03-30T14:32:44Z</time></trkpt><trkpt lat="41.9407119826086" lon="-0.37956338447225124"><ele>321.3333333333333</ele><time>2026-03-30T14:32:45Z</time></trkpt><trkpt lat="41.940791276511135" lon="-0.3798311026357389"><ele>321.66666666666663</ele><time>2026-03-30T14:32:46Z</time></trkpt><trkpt lat="41.94085670290266" lon="-0.38006348798120415"><ele>322.0</ele><time>2026-03-30T14:32:47Z</time></trkpt><trkpt lat="41.94090728077224" lon="-0.38025369722670316"><ele>323.3333333333333</ele><time>2026-03-30T14:32:48Z</time></trkpt><trkpt lat="41.9409575110532" lon="-0.38043667032295975"><ele>324.6666666666667</ele><time>2026-03-30T14:32:49Z</time></trkpt><trkpt lat="41.94101149319505" lon="-0.38062479471072436"><ele>326.0</ele><time>2026-03-30T14:32:50Z</time></trkpt><trkpt lat="41.941074150196485" lon="-0.38081978506338343"><ele>326.0</ele><time>2026-03-30T14:32:51Z</time></trkpt><trkpt lat="41.941136803180626" lon="-0.38102376169269336"><ele>326.0</ele><time>2026-03-30T14:32:52Z</time></trkpt><trkpt lat="41.941198399586405" lon="-0.38124040856985086"><ele>326.0</ele><time>2026-03-30T14:32:53Z</time></trkpt><trkpt lat="41.94125592341323" lon="-0.3814621076464358"><ele>326.0</ele><time>2026-03-30T14:32:54Z</time></trkpt><trkpt lat="41.94131797185933" lon="-0.38168640400510717"><ele>326.0</ele><time>2026-03-30T14:32:55Z</time></trkpt><trkpt lat="41.94139052203826" lon="-0.3818979313726245"><ele>326.0</ele><time>2026-03-30T14:32:56Z</time></trkpt><trkpt lat="41.94147394691898" lon="-0.3821100367393337"><ele>326.0</ele><time>2026-03-30T14:32:57Z</time></trkpt><trkpt lat="41.94156266108126" lon="-0.3823136489279661"><ele>326.0</ele><time>2026-03-30T14:32:58Z</time></trkpt><trkpt lat="41.941662219884485" lon="-0.3825105445762821"><ele>326.0</ele><time>2026-03-30T14:32:59Z</time></trkpt><trkpt lat="41.94177041585382" lon="-0.3827054902109429"><ele>326.0</ele><time>2026-03-30T14:33:00Z</time></trkpt><trkpt lat="41.94188950223785" lon="-0.3828948204896935"><ele>326.0</ele><time>2026-03-30T14:33:01Z</time></trkpt><trkpt lat="41.942016621371216" lon="-0.38307979563066064"><ele>326.0</ele><time>2026-03-30T14:33:02Z</time></trkpt><trkpt lat="41.94215245700994" lon="-0.38326752446340673"><ele>326.0</ele><time>2026-03-30T14:33:03Z</time></trkpt><trkpt lat="41.942296231850264" lon="-0.3834454793107507"><ele>326.0</ele><time>2026-03-30T14:33:04Z</time></trkpt><trkpt lat="41.942449123775006" lon="-0.3836090733309076"><ele>326.0</ele><time>2026-03-30T14:33:05Z</time></trkpt><trkpt lat="41.94261551366631" lon="-0.3837791555301429"><ele>325.5</ele><time>2026-03-30T14:33:06Z</time></trkpt><trkpt lat="41.942823800313064" lon="-0.38398821004340794"><ele>325.0</ele><time>2026-03-30T14:33:07Z</time></trkpt><trkpt lat="41.94305267458295" lon="-0.38420518062415054"><ele>325.0</ele><time>2026-03-30T14:33:08Z</time></trkpt><trkpt lat="41.943248054741495" lon="-0.3844337484052524"><ele>325.0</ele><time>2026-03-30T14:33:09Z</time></trkpt><trkpt lat="41.94346914863131" lon="-0.38466574701323164"><ele>326.0</ele><time>2026-03-30T14:33:10Z</time></trkpt><trkpt lat="41.94370116885411" lon="-0.3849231232972184"><ele>327.0</ele><time>2026-03-30T14:33:11Z</time></trkpt><trkpt lat="41.943909923162735" lon="-0.38518564922653015"><ele>327.0</ele><time>2026-03-30T14:33:12Z</time></trkpt><trkpt lat="41.94410746024061" lon="-0.38548879046103784"><ele>327.0</ele><time>2026-03-30T14:33:13Z</time></trkpt><trkpt lat="41.944293588045866" lon="-0.385823157798396"><ele>327.0</ele><time>2026-03-30T14:33:14Z</time></trkpt><trkpt lat="41.9444703832598" lon="-0.3861768124427721"><ele>327.0</ele><time>2026-03-30T14:33:15Z</time></trkpt><trkpt lat="41.944637470692676" lon="-0.3865383575526293"><ele>327.0</ele><time>2026-03-30T14:33:16Z</time></trkpt><trkpt lat="41.944806553847805" lon="-0.3869083386872512"><ele>327.0</ele><time>2026-03-30T14:33:17Z</time></trkpt><trkpt lat="41.944972687871974" lon="-0.3872917512789858"><ele>327.0</ele><time>2026-03-30T14:33:18Z</time></trkpt><trkpt lat="41.94514169564146" lon="-0.3876761853536323"><ele>327.0</ele><time>2026-03-30T14:33:19Z</time></trkpt><trkpt lat="41.94530075948285" lon="-0.3880411134826704"><ele>327.0</ele><time>2026-03-30T14:33:20Z</time></trkpt><trkpt lat="41.94544547778442" lon="-0.38837638210097564"><ele>327.0</ele><time>2026-03-30T14:33:21Z</time></trkpt><trkpt lat="41.945583568817966" lon="-0.3886955658926181"><ele>325.0</ele><time>2026-03-30T14:33:22Z</time></trkpt><trkpt lat="41.94572339944061" lon="-0.3890132129497327"><ele>323.0</ele><time>2026-03-30T14:33:23Z</time></trkpt><trkpt lat="41.94586899824381" lon="-0.389338672093389"><ele>323.0</ele><time>2026-03-30T14:33:24Z</time></trkpt><trkpt lat="41.94600781833995" lon="-0.38965796127617486"><ele>323.0</ele><time>2026-03-30T14:33:25Z</time></trkpt><trkpt lat="41.946143769574505" lon="-0.38998453136997463"><ele>323.5</ele><time>2026-03-30T14:33:26Z</time></trkpt><trkpt lat="41.946279092295214" lon="-0.3902919982323621"><ele>324.0</ele><time>2026-03-30T14:33:27Z</time></trkpt><trkpt lat="41.94640880224565" lon="-0.39057259886809964"><ele>324.5</ele><time>2026-03-30T14:33:28Z</time></trkpt><trkpt lat="41.94652776450855" lon="-0.3908454372141862"><ele>325.0</ele><time>2026-03-30T14:33:29Z</time></trkpt><trkpt lat="41.946644258136224" lon="-0.3911190883253801"><ele>325.5</ele><time>2026-03-30T14:33:30Z</time></trkpt><trkpt lat="41.94676132845983" lon="-0.3913890059659046"><ele>326.0</ele><time>2026-03-30T14:33:31Z</time></trkpt><trkpt lat="41.94687923843953" lon="-0.39165167561268444"><ele>326.0</ele><time>2026-03-30T14:33:32Z</time></trkpt><trkpt lat="41.9469928734408" lon="-0.3919068705816099"><ele>326.0</ele><time>2026-03-30T14:33:33Z</time></trkpt><trkpt lat="41.947101881587" lon="-0.3921576943731449"><ele>326.0</ele><time>2026-03-30T14:33:34Z</time></trkpt><trkpt lat="41.94721118038342" lon="-0.39241658498787374"><ele>326.33333333333337</ele><time>2026-03-30T14:33:35Z</time></trkpt><trkpt lat="41.94731769473532" lon="-0.3926751303199686"><ele>326.6666666666667</ele><time>2026-03-30T14:33:36Z</time></trkpt><trkpt lat="41.947415949298964" lon="-0.39293542364101725"><ele>327.0</ele><time>2026-03-30T14:33:37Z</time></trkpt><trkpt lat="41.94750463402466" lon="-0.39321527956430247"><ele>326.5</ele><time>2026-03-30T14:33:38Z</time></trkpt><trkpt lat="41.94758593087363" lon="-0.3934982549387067"><ele>326.0</ele><time>2026-03-30T14:33:39Z</time></trkpt><trkpt lat="41.94765855809761" lon="-0.3937902538975951"><ele>326.0</ele><time>2026-03-30T14:33:40Z</time></trkpt><trkpt lat="41.947735829722575" lon="-0.3940865385175374"><ele>326.0</ele><time>2026-03-30T14:33:41Z</time></trkpt><trkpt lat="41.94779214371049" lon="-0.39439229749060917"><ele>326.0</ele><time>2026-03-30T14:33:42Z</time></trkpt><trkpt lat="41.94784849742976" lon="-0.3947017181848383"><ele>326.0</ele><time>2026-03-30T14:33:43Z</time></trkpt><trkpt lat="41.947899898431224" lon="-0.39502342363028337"><ele>326.0</ele><time>2026-03-30T14:33:44Z</time></trkpt><trkpt lat="41.94795402088793" lon="-0.39534922836194564"><ele>326.0</ele><time>2026-03-30T14:33:45Z</time></trkpt><trkpt lat="41.94801737281903" lon="-0.3956872847622128"><ele>326.0</ele><time>2026-03-30T14:33:46Z</time></trkpt><trkpt lat="41.94808525649712" lon="-0.3960264966830197"><ele>326.0</ele><time>2026-03-30T14:33:47Z</time></trkpt><trkpt lat="41.94815010472705" lon="-0.39636837776535105"><ele>326.0</ele><time>2026-03-30T14:33:48Z</time></trkpt><trkpt lat="41.948208348769036" lon="-0.396696227087371"><ele>326.0</ele><time>2026-03-30T14:33:49Z</time></trkpt><trkpt lat="41.9482642877251" lon="-0.3970178287668207"><ele>326.5</ele><time>2026-03-30T14:33:50Z</time></trkpt><trkpt lat="41.94832228624288" lon="-0.39732858195119514"><ele>327.0</ele><time>2026-03-30T14:33:51Z</time></trkpt><trkpt lat="41.9483772379295" lon="-0.39763514827777513"><ele>327.5</ele><time>2026-03-30T14:33:52Z</time></trkpt><trkpt lat="41.948437226167066" lon="-0.3979387568737356"><ele>328.0</ele><time>2026-03-30T14:33:53Z</time></trkpt><trkpt lat="41.94849783708775" lon="-0.3982463837307519"><ele>328.5</ele><time>2026-03-30T14:33:54Z</time></trkpt><trkpt lat="41.94855188840613" lon="-0.3985508836126744"><ele>329.0</ele><time>2026-03-30T14:33:55Z</time></trkpt><trkpt lat="41.948604316989965" lon="-0.39884731699957054"><ele>329.0</ele><time>2026-03-30T14:33:56Z</time></trkpt><trkpt lat="41.948656844599135" lon="-0.3991420759612393"><ele>329.0</ele><time>2026-03-30T14:33:57Z</time></trkpt><trkpt lat="41.94871084213046" lon="-0.3994258005459391"><ele>329.0</ele><time>2026-03-30T14:33:58Z</time></trkpt><trkpt lat="41.9487551301663" lon="-0.3997128305084606"><ele>329.0</ele><time>2026-03-30T14:33:59Z</time></trkpt><trkpt lat="41.94878866741875" lon="-0.4000090576682048"><ele>329.0</ele><time>2026-03-30T14:34:00Z</time></trkpt><trkpt lat="41.948812196300786" lon="-0.40031369495439295"><ele>329.33333333333337</ele><time>2026-03-30T14:34:01Z</time></trkpt><trkpt lat="41.948832281736195" lon="-0.40061661202593063"><ele>329.6666666666667</ele><time>2026-03-30T14:34:02Z</time></trkpt><trkpt lat="41.94884466278102" lon="-0.40091025652449414"><ele>330.0</ele><time>2026-03-30T14:34:03Z</time></trkpt><trkpt lat="41.948849966185485" lon="-0.4011999102973285"><ele>329.5</ele><time>2026-03-30T14:34:04Z</time></trkpt><trkpt lat="41.948848196174104" lon="-0.4015093321145563"><ele>329.0</ele><time>2026-03-30T14:34:05Z</time></trkpt><trkpt lat="41.94883962477058" lon="-0.4018169415309953"><ele>329.0</ele><time>2026-03-30T14:34:06Z</time></trkpt><trkpt lat="41.948821597326685" lon="-0.4021085944281439"><ele>329.0</ele><time>2026-03-30T14:34:07Z</time></trkpt><trkpt lat="41.94879664003022" lon="-0.40239848756592833"><ele>329.0</ele><time>2026-03-30T14:34:08Z</time></trkpt><trkpt lat="41.94878235334451" lon="-0.40269103459367334"><ele>328.6666666666667</ele><time>2026-03-30T14:34:09Z</time></trkpt><trkpt lat="41.948770070907436" lon="-0.40299055971690373"><ele>328.3333333333333</ele><time>2026-03-30T14:34:10Z</time></trkpt><trkpt lat="41.948746359383335" lon="-0.4032925744943427"><ele>328.0</ele><time>2026-03-30T14:34:11Z</time></trkpt><trkpt lat="41.948729079743416" lon="-0.40358543028651406"><ele>328.0</ele><time>2026-03-30T14:34:12Z</time></trkpt><trkpt lat="41.9487118464003" lon="-0.4038738214974588"><ele>328.0</ele><time>2026-03-30T14:34:13Z</time></trkpt><trkpt lat="41.94869642758976" lon="-0.40416836744328466"><ele>328.0</ele><time>2026-03-30T14:34:14Z</time></trkpt><trkpt lat="41.9486827501792" lon="-0.40446044553067595"><ele>328.5</ele><time>2026-03-30T14:34:15Z</time></trkpt><trkpt lat="41.94866310409122" lon="-0.4047654114960747"><ele>329.0</ele><time>2026-03-30T14:34:16Z</time></trkpt><trkpt lat="41.94864109338428" lon="-0.4050719640199429"><ele>329.0</ele><time>2026-03-30T14:34:17Z</time></trkpt><trkpt lat="41.94861415102237" lon="-0.4053734032018944"><ele>329.0</ele><time>2026-03-30T14:34:18Z</time></trkpt><trkpt lat="41.94858852675419" lon="-0.40567723757954294"><ele>330.0</ele><time>2026-03-30T14:34:19Z</time></trkpt><trkpt lat="41.948577021783336" lon="-0.4059838411356504"><ele>331.0</ele><time>2026-03-30T14:34:20Z</time></trkpt><trkpt lat="41.948566277244495" lon="-0.406283941289372"><ele>331.0</ele><time>2026-03-30T14:34:21Z</time></trkpt><trkpt lat="41.94854773130777" lon="-0.4065763257735827"><ele>331.0</ele><time>2026-03-30T14:34:22Z</time></trkpt><trkpt lat="41.948533593379764" lon="-0.40686937239818566"><ele>331.0</ele><time>2026-03-30T14:34:23Z</time></trkpt><trkpt lat="41.948515425061004" lon="-0.4071567447825608"><ele>331.0</ele><time>2026-03-30T14:34:24Z</time></trkpt><trkpt lat="41.94849090558122" lon="-0.40743777263042197"><ele>331.0</ele><time>2026-03-30T14:34:25Z</time></trkpt><trkpt lat="41.948474524796275" lon="-0.4077180316503278"><ele>331.0</ele><time>2026-03-30T14:34:26Z</time></trkpt><trkpt lat="41.94846540954915" lon="-0.4079978710182262"><ele>330.66666666666663</ele><time>2026-03-30T14:34:27Z</time></trkpt><trkpt lat="41.948455134472916" lon="-0.40827346265892284"><ele>330.3333333333333</ele><time>2026-03-30T14:34:28Z</time></trkpt><trkpt lat="41.94844785801406" lon="-0.4085535389896752"><ele>330.0</ele><time>2026-03-30T14:34:29Z</time></trkpt><trkpt lat="41.948443566439465" lon="-0.4088289555220979"><ele>330.6666666666667</ele><time>2026-03-30T14:34:30Z</time></trkpt><trkpt lat="41.948453662106814" lon="-0.40910305322885837"><ele>331.33333333333337</ele><time>2026-03-30T14:34:31Z</time></trkpt><trkpt lat="41.94847452202141" lon="-0.4093752397896418"><ele>332.0</ele><time>2026-03-30T14:34:32Z</time></trkpt><trkpt lat="41.94849564959909" lon="-0.40964516888885216"><ele>333.33333333333337</ele><time>2026-03-30T14:34:33Z</time></trkpt><trkpt lat="41.948517878563216" lon="-0.40991500038242396"><ele>334.6666666666667</ele><time>2026-03-30T14:34:34Z</time></trkpt><trkpt lat="41.94854149230989" lon="-0.4101745630232944"><ele>336.0</ele><time>2026-03-30T14:34:35Z</time></trkpt><trkpt lat="41.94856222387792" lon="-0.4104095439559588"><ele>337.0</ele><time>2026-03-30T14:34:36Z</time></trkpt><trkpt lat="41.94857169281113" lon="-0.41061555122531085"><ele>338.0</ele><time>2026-03-30T14:34:37Z</time></trkpt><trkpt lat="41.9485573782983" lon="-0.41081136056275513"><ele>339.0</ele><time>2026-03-30T14:34:38Z</time></trkpt><trkpt lat="41.94851431186404" lon="-0.4110113299306111"><ele>339.0</ele><time>2026-03-30T14:34:39Z</time></trkpt><trkpt lat="41.94843139408036" lon="-0.411212863745807"><ele>339.0</ele><time>2026-03-30T14:34:40Z</time></trkpt><trkpt lat="41.948305629499714" lon="-0.41140542442233224"><ele>339.0</ele><time>2026-03-30T14:34:41Z</time></trkpt><trkpt lat="41.94815624538155" lon="-0.4115798315249816"><ele>335.0</ele><time>2026-03-30T14:34:42Z</time></trkpt><trkpt lat="41.94796276499642" lon="-0.41175054923497123"><ele>331.0</ele><time>2026-03-30T14:34:43Z</time></trkpt><trkpt lat="41.94777828694492" lon="-0.4119461154581037"><ele>330.0</ele><time>2026-03-30T14:34:44Z</time></trkpt><trkpt lat="41.94760846560542" lon="-0.4121625405600846"><ele>329.0</ele><time>2026-03-30T14:34:45Z</time></trkpt><trkpt lat="41.94744445617661" lon="-0.4123989859349573"><ele>329.0</ele><time>2026-03-30T14:34:46Z</time></trkpt><trkpt lat="41.947295357397145" lon="-0.4126541672973241"><ele>329.0</ele><time>2026-03-30T14:34:47Z</time></trkpt><trkpt lat="41.94715637971243" lon="-0.41291618137030683"><ele>329.5</ele><time>2026-03-30T14:34:48Z</time></trkpt><trkpt lat="41.94702099485971" lon="-0.4131897886465367"><ele>330.0</ele><time>2026-03-30T14:34:49Z</time></trkpt><trkpt lat="41.946882534915254" lon="-0.41346546948623064"><ele>330.0</ele><time>2026-03-30T14:34:50Z</time></trkpt><trkpt lat="41.94673103624435" lon="-0.413762029697647"><ele>330.0</ele><time>2026-03-30T14:34:51Z</time></trkpt><trkpt lat="41.94659675919141" lon="-0.4140394742907375"><ele>329.5</ele><time>2026-03-30T14:34:52Z</time></trkpt><trkpt lat="41.94645888673661" lon="-0.4143040297777081"><ele>329.0</ele><time>2026-03-30T14:34:53Z</time></trkpt><trkpt lat="41.94632034384007" lon="-0.4145652950700565"><ele>328.0</ele><time>2026-03-30T14:34:54Z</time></trkpt><trkpt lat="41.946186446885804" lon="-0.4148255009472674"><ele>327.0</ele><time>2026-03-30T14:34:55Z</time></trkpt><trkpt lat="41.94605763217911" lon="-0.415088969974353"><ele>327.0</ele><time>2026-03-30T14:34:56Z</time></trkpt><trkpt lat="41.945927740505105" lon="-0.4153547998158414"><ele>327.0</ele><time>2026-03-30T14:34:57Z</time></trkpt><trkpt lat="41.94579294616448" lon="-0.41560844961920357"><ele>328.5</ele><time>2026-03-30T14:34:58Z</time></trkpt><trkpt lat="41.94565549286333" lon="-0.41585897553878154"><ele>330.0</ele><time>2026-03-30T14:34:59Z</time></trkpt><trkpt lat="41.945523508386465" lon="-0.4161242468974977"><ele>329.0</ele><time>2026-03-30T14:35:00Z</time></trkpt><trkpt lat="41.945398790967616" lon="-0.41639369596749415"><ele>328.0</ele><time>2026-03-30T14:35:01Z</time></trkpt><trkpt lat="41.94526630619431" lon="-0.41666285180635304"><ele>328.0</ele><time>2026-03-30T14:35:02Z</time></trkpt><trkpt lat="41.94513053772687" lon="-0.41693330355058605"><ele>328.0</ele><time>2026-03-30T14:35:03Z</time></trkpt><trkpt lat="41.94499568653968" lon="-0.4172233543357682"><ele>330.0</ele><time>2026-03-30T14:35:04Z</time></trkpt><trkpt lat="41.94487049621982" lon="-0.4175184045369069"><ele>332.0</ele><time>2026-03-30T14:35:05Z</time></trkpt><trkpt lat="41.94474742172415" lon="-0.4178205697224956"><ele>330.5</ele><time>2026-03-30T14:35:06Z</time></trkpt><trkpt lat="41.94463202459779" lon="-0.4181312467544203"><ele>329.0</ele><time>2026-03-30T14:35:07Z</time></trkpt><trkpt lat="41.94453230946461" lon="-0.41846080499459054"><ele>329.0</ele><time>2026-03-30T14:35:08Z</time></trkpt><trkpt lat="41.944441994542856" lon="-0.41879447555235977"><ele>329.0</ele><time>2026-03-30T14:35:09Z</time></trkpt><trkpt lat="41.944356128922564" lon="-0.41912224273765564"><ele>329.5</ele><time>2026-03-30T14:35:10Z</time></trkpt><trkpt lat="41.94427873864483" lon="-0.4194468187998652"><ele>330.0</ele><time>2026-03-30T14:35:11Z</time></trkpt><trkpt lat="41.94420473365462" lon="-0.41976667028024567"><ele>330.0</ele><time>2026-03-30T14:35:12Z</time></trkpt><trkpt lat="41.94413739558856" lon="-0.42007968137687274"><ele>330.0</ele><time>2026-03-30T14:35:13Z</time></trkpt><trkpt lat="41.944065677970464" lon="-0.4203910280397098"><ele>330.0</ele><time>2026-03-30T14:35:14Z</time></trkpt><trkpt lat="41.94399522695308" lon="-0.42068746611656666"><ele>330.0</ele><time>2026-03-30T14:35:15Z</time></trkpt><trkpt lat="41.943931851726376" lon="-0.42097348388385014"><ele>330.0</ele><time>2026-03-30T14:35:16Z</time></trkpt><trkpt lat="41.94386780276689" lon="-0.42125372335797134"><ele>330.0</ele><time>2026-03-30T14:35:17Z</time></trkpt><trkpt lat="41.94379679494463" lon="-0.421513480965877"><ele>330.0</ele><time>2026-03-30T14:35:18Z</time></trkpt><trkpt lat="41.943732131812034" lon="-0.42177399422956713"><ele>330.0</ele><time>2026-03-30T14:35:19Z</time></trkpt><trkpt lat="41.94367731041342" lon="-0.42203291716982894"><ele>330.0</ele><time>2026-03-30T14:35:20Z</time></trkpt><trkpt lat="41.94361772880269" lon="-0.4222895491255949"><ele>330.0</ele><time>2026-03-30T14:35:21Z</time></trkpt><trkpt lat="41.9435506892599" lon="-0.4225456437834613"><ele>330.3333333333333</ele><time>2026-03-30T14:35:22Z</time></trkpt><trkpt lat="41.943492517096644" lon="-0.42280860342094606"><ele>330.66666666666663</ele><time>2026-03-30T14:35:23Z</time></trkpt><trkpt lat="41.943428569080595" lon="-0.4230763862442826"><ele>331.0</ele><time>2026-03-30T14:35:24Z</time></trkpt><trkpt lat="41.94335796664301" lon="-0.42333725087192375"><ele>332.0</ele><time>2026-03-30T14:35:25Z</time></trkpt><trkpt lat="41.943300258375366" lon="-0.42359992687577525"><ele>333.0</ele><time>2026-03-30T14:35:26Z</time></trkpt><trkpt lat="41.94324576058137" lon="-0.42386966234051515"><ele>334.0</ele><time>2026-03-30T14:35:27Z</time></trkpt><trkpt lat="41.94318554079288" lon="-0.4241441205873697"><ele>334.0</ele><time>2026-03-30T14:35:28Z</time></trkpt><trkpt lat="41.94314044954027" lon="-0.4244205594699658"><ele>334.0</ele><time>2026-03-30T14:35:29Z</time></trkpt><trkpt lat="41.94310948910203" lon="-0.42472452480744766"><ele>334.0</ele><time>2026-03-30T14:35:30Z</time></trkpt><trkpt lat="41.9430870222407" lon="-0.42503300543499634"><ele>335.5</ele><time>2026-03-30T14:35:31Z</time></trkpt><trkpt lat="41.94307669901555" lon="-0.42534116446048753"><ele>337.0</ele><time>2026-03-30T14:35:32Z</time></trkpt><trkpt lat="41.94308013950452" lon="-0.42564790339715"><ele>337.5</ele><time>2026-03-30T14:35:33Z</time></trkpt><trkpt lat="41.94310358888392" lon="-0.4259577405619067"><ele>338.0</ele><time>2026-03-30T14:35:34Z</time></trkpt><trkpt lat="41.94313474289987" lon="-0.426268709860498"><ele>340.0</ele><time>2026-03-30T14:35:35Z</time></trkpt><trkpt lat="41.943180640251946" lon="-0.426594683798172"><ele>342.0</ele><time>2026-03-30T14:35:36Z</time></trkpt><trkpt lat="41.94324055251348" lon="-0.4269176260992023"><ele>343.0</ele><time>2026-03-30T14:35:37Z</time></trkpt><trkpt lat="41.943316506201654" lon="-0.4272213349499236"><ele>344.0</ele><time>2026-03-30T14:35:38Z</time></trkpt><trkpt lat="41.943394734331115" lon="-0.4275254918034283"><ele>344.5</ele><time>2026-03-30T14:35:39Z</time></trkpt><trkpt lat="41.94347055964716" lon="-0.4278215004685389"><ele>345.0</ele><time>2026-03-30T14:35:40Z</time></trkpt><trkpt lat="41.94354639781286" lon="-0.42810973143466474"><ele>345.0</ele><time>2026-03-30T14:35:41Z</time></trkpt><trkpt lat="41.943628338732665" lon="-0.42839591473436944"><ele>345.0</ele><time>2026-03-30T14:35:42Z</time></trkpt><trkpt lat="41.94370161972743" lon="-0.42866695371502417"><ele>345.0</ele><time>2026-03-30T14:35:43Z</time></trkpt><trkpt lat="41.94376542653085" lon="-0.4289184522606544"><ele>345.3333333333333</ele><time>2026-03-30T14:35:44Z</time></trkpt><trkpt lat="41.94382761041361" lon="-0.4291718185229839"><ele>345.66666666666663</ele><time>2026-03-30T14:35:45Z</time></trkpt><trkpt lat="41.94389236808793" lon="-0.429430467966251"><ele>346.0</ele><time>2026-03-30T14:35:46Z</time></trkpt><trkpt lat="41.94396011791727" lon="-0.4296922634766402"><ele>346.66666666666663</ele><time>2026-03-30T14:35:47Z</time></trkpt><trkpt lat="41.94402986973536" lon="-0.4299554724115506"><ele>347.3333333333333</ele><time>2026-03-30T14:35:48Z</time></trkpt><trkpt lat="41.9440999413791" lon="-0.430223803632744"><ele>348.0</ele><time>2026-03-30T14:35:49Z</time></trkpt><trkpt lat="41.94417299153438" lon="-0.4305087575962187"><ele>347.5</ele><time>2026-03-30T14:35:50Z</time></trkpt><trkpt lat="41.944248409022876" lon="-0.4308073358458802"><ele>347.0</ele><time>2026-03-30T14:35:51Z</time></trkpt><trkpt lat="41.94432926823359" lon="-0.4311103138406544"><ele>348.0</ele><time>2026-03-30T14:35:52Z</time></trkpt><trkpt lat="41.94440939750804" lon="-0.4314163690502049"><ele>349.0</ele><time>2026-03-30T14:35:53Z</time></trkpt><trkpt lat="41.94449032356584" lon="-0.43171885067171184"><ele>349.0</ele><time>2026-03-30T14:35:54Z</time></trkpt><trkpt lat="41.944571445929576" lon="-0.4320103962306646"><ele>349.0</ele><time>2026-03-30T14:35:55Z</time></trkpt><trkpt lat="41.944649848748064" lon="-0.4322984878543933"><ele>349.3333333333333</ele><time>2026-03-30T14:35:56Z</time></trkpt><trkpt lat="41.94471685405664" lon="-0.4325714427830357"><ele>349.6666666666667</ele><time>2026-03-30T14:35:57Z</time></trkpt><trkpt lat="41.944784976118314" lon="-0.4328561114297227"><ele>350.0</ele><time>2026-03-30T14:35:58Z</time></trkpt><trkpt lat="41.944852583864154" lon="-0.43313661957919153"><ele>350.0</ele><time>2026-03-30T14:35:59Z</time></trkpt><trkpt lat="41.94492506747972" lon="-0.43341725999406117"><ele>350.0</ele><time>2026-03-30T14:36:00Z</time></trkpt><trkpt lat="41.94500087175471" lon="-0.4336988180232074"><ele>350.0</ele><time>2026-03-30T14:36:01Z</time></trkpt><trkpt lat="41.94507876051067" lon="-0.43397422446309364"><ele>350.0</ele><time>2026-03-30T14:36:02Z</time></trkpt><trkpt lat="41.945155281961746" lon="-0.43425982821369363"><ele>350.0</ele><time>2026-03-30T14:36:03Z</time></trkpt><trkpt lat="41.945229246546475" lon="-0.4345616442218138"><ele>350.5</ele><time>2026-03-30T14:36:04Z</time></trkpt><trkpt lat="41.9453025870971" lon="-0.43486575980144315"><ele>351.0</ele><time>2026-03-30T14:36:05Z</time></trkpt><trkpt lat="41.94538214397236" lon="-0.43515690765884235"><ele>351.0</ele><time>2026-03-30T14:36:06Z</time></trkpt><trkpt lat="41.94546386570538" lon="-0.4354474102539606"><ele>351.0</ele><time>2026-03-30T14:36:07Z</time></trkpt><trkpt lat="41.945543842803474" lon="-0.4357388273100718"><ele>351.0</ele><time>2026-03-30T14:36:08Z</time></trkpt><trkpt lat="41.945616204600164" lon="-0.43603412334624153"><ele>351.0</ele><time>2026-03-30T14:36:09Z</time></trkpt><trkpt lat="41.94569242185166" lon="-0.4363254096983478"><ele>350.0</ele><time>2026-03-30T14:36:10Z</time></trkpt><trkpt lat="41.94576981869741" lon="-0.43662997816943266"><ele>349.0</ele><time>2026-03-30T14:36:11Z</time></trkpt><trkpt lat="41.94584366891371" lon="-0.43693037233913806"><ele>349.0</ele><time>2026-03-30T14:36:12Z</time></trkpt><trkpt lat="41.94591903071265" lon="-0.43722688948906063"><ele>349.0</ele><time>2026-03-30T14:36:13Z</time></trkpt><trkpt lat="41.94599826618206" lon="-0.43752821933732866"><ele>349.0</ele><time>2026-03-30T14:36:14Z</time></trkpt><trkpt lat="41.94608295511532" lon="-0.4378405141785009"><ele>349.0</ele><time>2026-03-30T14:36:15Z</time></trkpt><trkpt lat="41.946162304553106" lon="-0.43815223191300234"><ele>350.0</ele><time>2026-03-30T14:36:16Z</time></trkpt><trkpt lat="41.94624162400823" lon="-0.43845242020695735"><ele>351.0</ele><time>2026-03-30T14:36:17Z</time></trkpt><trkpt lat="41.94632703966363" lon="-0.4387568890939926"><ele>350.5</ele><time>2026-03-30T14:36:18Z</time></trkpt><trkpt lat="41.94640860129409" lon="-0.43905563587970997"><ele>350.0</ele><time>2026-03-30T14:36:19Z</time></trkpt><trkpt lat="41.946483907453704" lon="-0.43936601296823297"><ele>350.5</ele><time>2026-03-30T14:36:20Z</time></trkpt><trkpt lat="41.946563428253405" lon="-0.4396856226737983"><ele>351.0</ele><time>2026-03-30T14:36:21Z</time></trkpt><trkpt lat="41.9466528417597" lon="-0.44000891835360006"><ele>351.0</ele><time>2026-03-30T14:36:22Z</time></trkpt><trkpt lat="41.94673964244287" lon="-0.4403296002916486"><ele>351.0</ele><time>2026-03-30T14:36:23Z</time></trkpt><trkpt lat="41.946822151034986" lon="-0.4406579214632271"><ele>351.0</ele><time>2026-03-30T14:36:24Z</time></trkpt><trkpt lat="41.946902969453596" lon="-0.44097113449051495"><ele>351.0</ele><time>2026-03-30T14:36:25Z</time></trkpt><trkpt lat="41.94698675842401" lon="-0.4412786520209203"><ele>349.5</ele><time>2026-03-30T14:36:26Z</time></trkpt><trkpt lat="41.94706417116587" lon="-0.44158285679789877"><ele>348.0</ele><time>2026-03-30T14:36:27Z</time></trkpt><trkpt lat="41.94713787581551" lon="-0.44187586939320167"><ele>347.0</ele><time>2026-03-30T14:36:28Z</time></trkpt><trkpt lat="41.94721799240391" lon="-0.44217970629878495"><ele>346.0</ele><time>2026-03-30T14:36:29Z</time></trkpt><trkpt lat="41.947297102707786" lon="-0.4424834652364855"><ele>346.0</ele><time>2026-03-30T14:36:30Z</time></trkpt><trkpt lat="41.94737421647071" lon="-0.4427877057151196"><ele>346.0</ele><time>2026-03-30T14:36:31Z</time></trkpt><trkpt lat="41.94745006545194" lon="-0.443094574315863"><ele>345.0</ele><time>2026-03-30T14:36:32Z</time></trkpt><trkpt lat="41.94752943474949" lon="-0.4434100722025075"><ele>344.0</ele><time>2026-03-30T14:36:33Z</time></trkpt><trkpt lat="41.94760873189915" lon="-0.4437202912325015"><ele>344.0</ele><time>2026-03-30T14:36:34Z</time></trkpt><trkpt lat="41.947691364759955" lon="-0.4440342355437688"><ele>344.0</ele><time>2026-03-30T14:36:35Z</time></trkpt><trkpt lat="41.94777148365627" lon="-0.4443486221775281"><ele>341.5</ele><time>2026-03-30T14:36:36Z</time></trkpt><trkpt lat="41.94785281398605" lon="-0.44466541105952995"><ele>339.0</ele><time>2026-03-30T14:36:37Z</time></trkpt><trkpt lat="41.94793732631719" lon="-0.4449842180196782"><ele>339.0</ele><time>2026-03-30T14:36:38Z</time></trkpt><trkpt lat="41.94802134826013" lon="-0.44530351013416913"><ele>339.0</ele><time>2026-03-30T14:36:39Z</time></trkpt><trkpt lat="41.94809424738423" lon="-0.44562172726726024"><ele>337.5</ele><time>2026-03-30T14:36:40Z</time></trkpt><trkpt lat="41.948166078899256" lon="-0.4459386160646471"><ele>336.0</ele><time>2026-03-30T14:36:41Z</time></trkpt><trkpt lat="41.948243277307235" lon="-0.44624205027674924"><ele>336.0</ele><time>2026-03-30T14:36:42Z</time></trkpt><trkpt lat="41.94832399501573" lon="-0.44653787998657035"><ele>336.0</ele><time>2026-03-30T14:36:43Z</time></trkpt><trkpt lat="41.948395296716996" lon="-0.44683402973753034"><ele>336.0</ele><time>2026-03-30T14:36:44Z</time></trkpt><trkpt lat="41.94846953863521" lon="-0.44713287637835053"><ele>336.0</ele><time>2026-03-30T14:36:45Z</time></trkpt><trkpt lat="41.94854698976439" lon="-0.4474298110754893"><ele>336.0</ele><time>2026-03-30T14:36:46Z</time></trkpt><trkpt lat="41.9486280586691" lon="-0.4477300634642497"><ele>336.0</ele><time>2026-03-30T14:36:47Z</time></trkpt><trkpt lat="41.94870772100194" lon="-0.44802757300724083"><ele>337.5</ele><time>2026-03-30T14:36:48Z</time></trkpt><trkpt lat="41.94879059277635" lon="-0.44833383904119045"><ele>339.0</ele><time>2026-03-30T14:36:49Z</time></trkpt><trkpt lat="41.9488770413856" lon="-0.44863376445908687"><ele>340.0</ele><time>2026-03-30T14:36:50Z</time></trkpt><trkpt lat="41.94896323149832" lon="-0.44891739149152965"><ele>341.0</ele><time>2026-03-30T14:36:51Z</time></trkpt><trkpt lat="41.94904275997943" lon="-0.44918803722900386"><ele>342.0</ele><time>2026-03-30T14:36:52Z</time></trkpt><trkpt lat="41.949107565511625" lon="-0.44941885421475714"><ele>342.0</ele><time>2026-03-30T14:36:53Z</time></trkpt><trkpt lat="41.94917480104944" lon="-0.4496442152926106"><ele>342.0</ele><time>2026-03-30T14:36:54Z</time></trkpt><trkpt lat="41.94924969702811" lon="-0.44987322763298915"><ele>342.0</ele><time>2026-03-30T14:36:55Z</time></trkpt><trkpt lat="41.949314254943864" lon="-0.45006479840493535"><ele>342.0</ele><time>2026-03-30T14:36:56Z</time></trkpt><trkpt lat="41.949361449561934" lon="-0.45022739923439153"><ele>342.0</ele><time>2026-03-30T14:36:57Z</time></trkpt><trkpt lat="41.94939913695005" lon="-0.450370029335447"><ele>342.0</ele><time>2026-03-30T14:36:58Z</time></trkpt><trkpt lat="41.94943803481934" lon="-0.45049831797550033"><ele>342.0</ele><time>2026-03-30T14:36:59Z</time></trkpt><trkpt lat="41.94947699222836" lon="-0.4506031081570075"><ele>342.0</ele><time>2026-03-30T14:37:00Z</time></trkpt><trkpt lat="41.94952619997175" lon="-0.4506873456752134"><ele>342.20000000000005</ele><time>2026-03-30T14:37:01Z</time></trkpt><trkpt lat="41.94959581835889" lon="-0.45076268802843517"><ele>342.4</ele><time>2026-03-30T14:37:02Z</time></trkpt><trkpt lat="41.949666794822605" lon="-0.4508438920065805"><ele>342.6</ele><time>2026-03-30T14:37:03Z</time></trkpt><trkpt lat="41.949718244993846" lon="-0.4509532330950758"><ele>342.79999999999995</ele><time>2026-03-30T14:37:04Z</time></trkpt><trkpt lat="41.94972913815941" lon="-0.4510944464644592"><ele>343.0</ele><time>2026-03-30T14:37:05Z</time></trkpt><trkpt lat="41.949692862009684" lon="-0.4512659346764714"><ele>342.66666666666663</ele><time>2026-03-30T14:37:06Z</time></trkpt><trkpt lat="41.94965257204976" lon="-0.45148958952523105"><ele>342.3333333333333</ele><time>2026-03-30T14:37:07Z</time></trkpt><trkpt lat="41.94962935959969" lon="-0.45172796211924693"><ele>342.0</ele><time>2026-03-30T14:37:08Z</time></trkpt><trkpt lat="41.94969565084889" lon="-0.45199560914842873"><ele>342.5</ele><time>2026-03-30T14:37:09Z</time></trkpt><trkpt lat="41.9497574823137" lon="-0.45228847027147195"><ele>343.0</ele><time>2026-03-30T14:37:10Z</time></trkpt><trkpt lat="41.94981267147978" lon="-0.4525828223684645"><ele>343.0</ele><time>2026-03-30T14:37:11Z</time></trkpt><trkpt lat="41.949868732381994" lon="-0.4528631601881486"><ele>343.0</ele><time>2026-03-30T14:37:12Z</time></trkpt><trkpt lat="41.9499307787843" lon="-0.45312984239925"><ele>343.0</ele><time>2026-03-30T14:37:13Z</time></trkpt><trkpt lat="41.949995652799025" lon="-0.45339800660295504"><ele>343.0</ele><time>2026-03-30T14:37:14Z</time></trkpt><trkpt lat="41.95006414609442" lon="-0.4536714550935938"><ele>343.0</ele><time>2026-03-30T14:37:15Z</time></trkpt><trkpt lat="41.950135168932135" lon="-0.45394675324496214"><ele>343.0</ele><time>2026-03-30T14:37:16Z</time></trkpt><trkpt lat="41.95020483766686" lon="-0.45421279212944393"><ele>343.0</ele><time>2026-03-30T14:37:17Z</time></trkpt><trkpt lat="41.95027095737777" lon="-0.45446643043580387"><ele>343.0</ele><time>2026-03-30T14:37:18Z</time></trkpt><trkpt lat="41.95032989413158" lon="-0.4547120723908219"><ele>343.0</ele><time>2026-03-30T14:37:19Z</time></trkpt><trkpt lat="41.950393748425235" lon="-0.4549618841724507"><ele>343.3333333333333</ele><time>2026-03-30T14:37:20Z</time></trkpt><trkpt lat="41.950462744813926" lon="-0.4552144566401148"><ele>343.6666666666667</ele><time>2026-03-30T14:37:21Z</time></trkpt><trkpt lat="41.950526135945175" lon="-0.45548129173077284"><ele>344.0</ele><time>2026-03-30T14:37:22Z</time></trkpt><trkpt lat="41.9505905767211" lon="-0.45575477923548097"><ele>344.0</ele><time>2026-03-30T14:37:23Z</time></trkpt><trkpt lat="41.95066528407294" lon="-0.4560361724808888"><ele>344.0</ele><time>2026-03-30T14:37:24Z</time></trkpt><trkpt lat="41.950744291553335" lon="-0.45633253635827764"><ele>344.5</ele><time>2026-03-30T14:37:25Z</time></trkpt><trkpt lat="41.95081657882175" lon="-0.4566298944079984"><ele>345.0</ele><time>2026-03-30T14:37:26Z</time></trkpt><trkpt lat="41.95088668462746" lon="-0.4569229176911177"><ele>345.5</ele><time>2026-03-30T14:37:27Z</time></trkpt><trkpt lat="41.95096209419588" lon="-0.45722636295377345"><ele>346.0</ele><time>2026-03-30T14:37:28Z</time></trkpt><trkpt lat="41.951038715877765" lon="-0.45754037517413765"><ele>346.0</ele><time>2026-03-30T14:37:29Z</time></trkpt><trkpt lat="41.95111630071313" lon="-0.457862400071633"><ele>346.0</ele><time>2026-03-30T14:37:30Z</time></trkpt><trkpt lat="41.951193365548114" lon="-0.4581033452660628"><ele>346.0</ele><time>2026-03-30T14:37:31Z</time></trkpt><trkpt lat="41.9512642204991" lon="-0.45838120349629274"><ele>345.66666666666663</ele><time>2026-03-30T14:37:32Z</time></trkpt><trkpt lat="41.95133272548056" lon="-0.45865900422284855"><ele>345.3333333333333</ele><time>2026-03-30T14:37:33Z</time></trkpt><trkpt lat="41.95140514581301" lon="-0.45893430136264374"><ele>345.0</ele><time>2026-03-30T14:37:34Z</time></trkpt><trkpt lat="41.95147065832595" lon="-0.4591923150059163"><ele>345.0</ele><time>2026-03-30T14:37:35Z</time></trkpt><trkpt lat="41.95153212920975" lon="-0.4594445843039865"><ele>345.0</ele><time>2026-03-30T14:37:36Z</time></trkpt><trkpt lat="41.95159685744438" lon="-0.4596970642507782"><ele>345.0</ele><time>2026-03-30T14:37:37Z</time></trkpt><trkpt lat="41.951659409324314" lon="-0.459948382557765"><ele>345.0</ele><time>2026-03-30T14:37:38Z</time></trkpt><trkpt lat="41.95172776827354" lon="-0.4602060003463148"><ele>345.0</ele><time>2026-03-30T14:37:39Z</time></trkpt><trkpt lat="41.95179404365815" lon="-0.46047164213550135"><ele>345.0</ele><time>2026-03-30T14:37:40Z</time></trkpt><trkpt lat="41.951862917570345" lon="-0.46075269373202876"><ele>345.0</ele><time>2026-03-30T14:37:41Z</time></trkpt><trkpt lat="41.951932589395675" lon="-0.46102344654610244"><ele>345.0</ele><time>2026-03-30T14:37:42Z</time></trkpt><trkpt lat="41.952001979064974" lon="-0.46129136259351305"><ele>345.0</ele><time>2026-03-30T14:37:43Z</time></trkpt><trkpt lat="41.95207083098642" lon="-0.461574544703024"><ele>345.5</ele><time>2026-03-30T14:37:44Z</time></trkpt><trkpt lat="41.95214953709648" lon="-0.4618716120666612"><ele>346.0</ele><time>2026-03-30T14:37:45Z</time></trkpt><trkpt lat="41.952224750853" lon="-0.46216443119512507"><ele>346.0</ele><time>2026-03-30T14:37:46Z</time></trkpt><trkpt lat="41.9522966897706" lon="-0.4624528563129249"><ele>346.0</ele><time>2026-03-30T14:37:47Z</time></trkpt><trkpt lat="41.95236784221834" lon="-0.4627367263340501"><ele>346.0</ele><time>2026-03-30T14:37:48Z</time></trkpt><trkpt lat="41.95243978603966" lon="-0.4630206210317737"><ele>346.5</ele><time>2026-03-30T14:37:49Z</time></trkpt><trkpt lat="41.952513572425836" lon="-0.4633071536627572"><ele>347.0</ele><time>2026-03-30T14:37:50Z</time></trkpt><trkpt lat="41.95258577166367" lon="-0.46360926763130433"><ele>346.5</ele><time>2026-03-30T14:37:51Z</time></trkpt><trkpt lat="41.95266033113721" lon="-0.4639174290105808"><ele>346.0</ele><time>2026-03-30T14:37:52Z</time></trkpt><trkpt lat="41.95274391844808" lon="-0.46423601232964573"><ele>346.0</ele><time>2026-03-30T14:37:53Z</time></trkpt><trkpt lat="41.95282528106576" lon="-0.46456299136302537"><ele>346.0</ele><time>2026-03-30T14:37:54Z</time></trkpt><trkpt lat="41.95290806879844" lon="-0.46488619150489796"><ele>346.0</ele><time>2026-03-30T14:37:55Z</time></trkpt><trkpt lat="41.95299402261027" lon="-0.46521322183818126"><ele>346.0</ele><time>2026-03-30T14:37:56Z</time></trkpt><trkpt lat="41.95307895235202" lon="-0.46553735757453424"><ele>346.0</ele><time>2026-03-30T14:37:57Z</time></trkpt><trkpt lat="41.953162712588274" lon="-0.46586558929324406"><ele>346.0</ele><time>2026-03-30T14:37:58Z</time></trkpt><trkpt lat="41.95324491013633" lon="-0.4661907156673078"><ele>345.5</ele><time>2026-03-30T14:37:59Z</time></trkpt><trkpt lat="41.953324081502956" lon="-0.46651432904792756"><ele>345.0</ele><time>2026-03-30T14:38:00Z</time></trkpt><trkpt lat="41.95340446953133" lon="-0.4668339336350358"><ele>345.5</ele><time>2026-03-30T14:38:01Z</time></trkpt><trkpt lat="41.95348824938826" lon="-0.4671623432898311"><ele>346.0</ele><time>2026-03-30T14:38:02Z</time></trkpt><trkpt lat="41.95357105441869" lon="-0.46748547998044837"><ele>346.0</ele><time>2026-03-30T14:38:03Z</time></trkpt><trkpt lat="41.95365621182821" lon="-0.467820160808397"><ele>346.0</ele><time>2026-03-30T14:38:04Z</time></trkpt><trkpt lat="41.95374041587815" lon="-0.4681571819088675"><ele>346.5</ele><time>2026-03-30T14:38:05Z</time></trkpt><trkpt lat="41.95382452954502" lon="-0.46850349554482584"><ele>347.0</ele><time>2026-03-30T14:38:06Z</time></trkpt><trkpt lat="41.95390973588813" lon="-0.4688462851492645"><ele>347.0</ele><time>2026-03-30T14:38:07Z</time></trkpt><trkpt lat="41.95399623336014" lon="-0.46917822267273473"><ele>347.0</ele><time>2026-03-30T14:38:08Z</time></trkpt><trkpt lat="41.954080081893984" lon="-0.4695013655466621"><ele>346.0</ele><time>2026-03-30T14:38:09Z</time></trkpt><trkpt lat="41.95415697252287" lon="-0.4698137568006732"><ele>345.0</ele><time>2026-03-30T14:38:10Z</time></trkpt><trkpt lat="41.9542320065964" lon="-0.47012037279250557"><ele>345.0</ele><time>2026-03-30T14:38:11Z</time></trkpt><trkpt lat="41.954304081381245" lon="-0.4704232508142162"><ele>345.0</ele><time>2026-03-30T14:38:12Z</time></trkpt><trkpt lat="41.954387417377795" lon="-0.4707204203303284"><ele>346.5</ele><time>2026-03-30T14:38:13Z</time></trkpt><trkpt lat="41.954470606780404" lon="-0.4710129377882492"><ele>348.0</ele><time>2026-03-30T14:38:14Z</time></trkpt><trkpt lat="41.95454466569388" lon="-0.47130486417491607"><ele>349.0</ele><time>2026-03-30T14:38:15Z</time></trkpt><trkpt lat="41.95461609845039" lon="-0.47159789855777695"><ele>350.0</ele><time>2026-03-30T14:38:16Z</time></trkpt><trkpt lat="41.95468752421561" lon="-0.4718855208009372"><ele>349.5</ele><time>2026-03-30T14:38:17Z</time></trkpt><trkpt lat="41.95475835966616" lon="-0.47217575552101376"><ele>349.0</ele><time>2026-03-30T14:38:18Z</time></trkpt><trkpt lat="41.95482972285959" lon="-0.4724779303748034"><ele>349.0</ele><time>2026-03-30T14:38:19Z</time></trkpt><trkpt lat="41.95490730266324" lon="-0.47278538012331245"><ele>349.0</ele><time>2026-03-30T14:38:20Z</time></trkpt><trkpt lat="41.95499054608633" lon="-0.4730948586395776"><ele>348.0</ele><time>2026-03-30T14:38:21Z</time></trkpt><trkpt lat="41.95507285781853" lon="-0.47340008872729444"><ele>347.0</ele><time>2026-03-30T14:38:22Z</time></trkpt><trkpt lat="41.95514660420018" lon="-0.4737116542484113"><ele>347.5</ele><time>2026-03-30T14:38:23Z</time></trkpt><trkpt lat="41.95522183428374" lon="-0.47401902512790334"><ele>348.0</ele><time>2026-03-30T14:38:24Z</time></trkpt><trkpt lat="41.95529822186672" lon="-0.4743183559184011"><ele>348.5</ele><time>2026-03-30T14:38:25Z</time></trkpt><trkpt lat="41.9553792177393" lon="-0.474619603845471"><ele>349.0</ele><time>2026-03-30T14:38:26Z</time></trkpt><trkpt lat="41.95546012688121" lon="-0.4749257982977273"><ele>349.0</ele><time>2026-03-30T14:38:27Z</time></trkpt><trkpt lat="41.955539327758196" lon="-0.4752375321637392"><ele>349.0</ele><time>2026-03-30T14:38:28Z</time></trkpt><trkpt lat="41.955614214409756" lon="-0.4755522530904338"><ele>351.0</ele><time>2026-03-30T14:38:29Z</time></trkpt><trkpt lat="41.955693248993214" lon="-0.4758703401538161"><ele>353.0</ele><time>2026-03-30T14:38:30Z</time></trkpt><trkpt lat="41.95577066887681" lon="-0.47617705938258087"><ele>353.5</ele><time>2026-03-30T14:38:31Z</time></trkpt><trkpt lat="41.95584954181398" lon="-0.47648420553247367"><ele>354.0</ele><time>2026-03-30T14:38:32Z</time></trkpt><trkpt lat="41.95593192785307" lon="-0.4767871141369098"><ele>352.0</ele><time>2026-03-30T14:38:33Z</time></trkpt><trkpt lat="41.95601369575183" lon="-0.47710220719132007"><ele>350.0</ele><time>2026-03-30T14:38:34Z</time></trkpt><trkpt lat="41.956090566792376" lon="-0.47742815425184326"><ele>350.0</ele><time>2026-03-30T14:38:35Z</time></trkpt><trkpt lat="41.9561711936736" lon="-0.4777565563100101"><ele>350.0</ele><time>2026-03-30T14:38:36Z</time></trkpt><trkpt lat="41.95625642276251" lon="-0.4780804812584814"><ele>350.0</ele><time>2026-03-30T14:38:37Z</time></trkpt><trkpt lat="41.95634297915562" lon="-0.47840683277233925"><ele>350.0</ele><time>2026-03-30T14:38:38Z</time></trkpt><trkpt lat="41.95642402754981" lon="-0.47872445660891105"><ele>350.0</ele><time>2026-03-30T14:38:39Z</time></trkpt><trkpt lat="41.956501070655875" lon="-0.4790286206101621"><ele>350.0</ele><time>2026-03-30T14:38:40Z</time></trkpt><trkpt lat="41.95657486249899" lon="-0.47933152330716616"><ele>350.0</ele><time>2026-03-30T14:38:41Z</time></trkpt><trkpt lat="41.95665080537225" lon="-0.4796304688065207"><ele>350.0</ele><time>2026-03-30T14:38:42Z</time></trkpt><trkpt lat="41.95672982986245" lon="-0.47994312848565424"><ele>349.0</ele><time>2026-03-30T14:38:43Z</time></trkpt><trkpt lat="41.95680752988028" lon="-0.4802519550997097"><ele>348.0</ele><time>2026-03-30T14:38:44Z</time></trkpt><trkpt lat="41.956885456884095" lon="-0.4805606385087594"><ele>348.0</ele><time>2026-03-30T14:38:45Z</time></trkpt><trkpt lat="41.95696303647774" lon="-0.4808665214522099"><ele>348.0</ele><time>2026-03-30T14:38:46Z</time></trkpt><trkpt lat="41.95704071875005" lon="-0.481173550507763"><ele>350.0</ele><time>2026-03-30T14:38:47Z</time></trkpt><trkpt lat="41.95711785633695" lon="-0.48147100084184297"><ele>352.0</ele><time>2026-03-30T14:38:48Z</time></trkpt><trkpt lat="41.95719074575459" lon="-0.48176152739645856"><ele>352.0</ele><time>2026-03-30T14:38:49Z</time></trkpt><trkpt lat="41.95725789405683" lon="-0.4820450441502139"><ele>352.0</ele><time>2026-03-30T14:38:50Z</time></trkpt><trkpt lat="41.95732613995142" lon="-0.48232685425551886"><ele>352.0</ele><time>2026-03-30T14:38:51Z</time></trkpt><trkpt lat="41.95740221467656" lon="-0.4826074922876865"><ele>352.0</ele><time>2026-03-30T14:38:52Z</time></trkpt><trkpt lat="41.957480249266695" lon="-0.482889448022592"><ele>352.0</ele><time>2026-03-30T14:38:53Z</time></trkpt><trkpt lat="41.95755135138576" lon="-0.4831730590717881"><ele>352.0</ele><time>2026-03-30T14:38:54Z</time></trkpt><trkpt lat="41.957619887475246" lon="-0.48346399301467285"><ele>352.0</ele><time>2026-03-30T14:38:55Z</time></trkpt><trkpt lat="41.95768999279165" lon="-0.4837578262854537"><ele>352.0</ele><time>2026-03-30T14:38:56Z</time></trkpt><trkpt lat="41.95776845447778" lon="-0.48406117864226184"><ele>353.5</ele><time>2026-03-30T14:38:57Z</time></trkpt><trkpt lat="41.957850765348" lon="-0.4843657904863512"><ele>355.0</ele><time>2026-03-30T14:38:58Z</time></trkpt><trkpt lat="41.95792635097915" lon="-0.48466775156445263"><ele>355.5</ele><time>2026-03-30T14:38:59Z</time></trkpt><trkpt lat="41.95799904836334" lon="-0.4849711404987867"><ele>356.0</ele><time>2026-03-30T14:39:00Z</time></trkpt><trkpt lat="41.95807158527299" lon="-0.4852625805643846"><ele>355.5</ele><time>2026-03-30T14:39:01Z</time></trkpt><trkpt lat="41.958148345242726" lon="-0.4855512667528508"><ele>355.0</ele><time>2026-03-30T14:39:02Z</time></trkpt><trkpt lat="41.95822267848829" lon="-0.4858413145661671"><ele>355.0</ele><time>2026-03-30T14:39:03Z</time></trkpt><trkpt lat="41.95829624978648" lon="-0.48613562568293256"><ele>355.0</ele><time>2026-03-30T14:39:04Z</time></trkpt><trkpt lat="41.95837260124798" lon="-0.48643958092730377"><ele>354.0</ele><time>2026-03-30T14:39:05Z</time></trkpt><trkpt lat="41.95844700154628" lon="-0.4867483423778372"><ele>353.0</ele><time>2026-03-30T14:39:06Z</time></trkpt><trkpt lat="41.95852264281855" lon="-0.48705857015819537"><ele>353.0</ele><time>2026-03-30T14:39:07Z</time></trkpt><trkpt lat="41.958601202143235" lon="-0.4873771159576977"><ele>353.0</ele><time>2026-03-30T14:39:08Z</time></trkpt><trkpt lat="41.95868908669695" lon="-0.4877022663295616"><ele>354.0</ele><time>2026-03-30T14:39:09Z</time></trkpt><trkpt lat="41.958776433532485" lon="-0.4880324122171441"><ele>355.0</ele><time>2026-03-30T14:39:10Z</time></trkpt><trkpt lat="41.95886338865576" lon="-0.4883678382135603"><ele>355.0</ele><time>2026-03-30T14:39:11Z</time></trkpt><trkpt lat="41.95894585433515" lon="-0.48869831280737625"><ele>355.0</ele><time>2026-03-30T14:39:12Z</time></trkpt><trkpt lat="41.959026057085026" lon="-0.4890302627665632"><ele>356.5</ele><time>2026-03-30T14:39:13Z</time></trkpt><trkpt lat="41.959106946298924" lon="-0.48935818539201126"><ele>358.0</ele><time>2026-03-30T14:39:14Z</time></trkpt><trkpt lat="41.9591849329491" lon="-0.48968514844158484"><ele>356.0</ele><time>2026-03-30T14:39:15Z</time></trkpt><trkpt lat="41.95925211414384" lon="-0.4900083592063796"><ele>354.0</ele><time>2026-03-30T14:39:16Z</time></trkpt><trkpt lat="41.959303806460525" lon="-0.4903279151419165"><ele>354.5</ele><time>2026-03-30T14:39:17Z</time></trkpt><trkpt lat="41.959343630423575" lon="-0.4906543951859155"><ele>355.0</ele><time>2026-03-30T14:39:18Z</time></trkpt><trkpt lat="41.95937609369313" lon="-0.4909655270579135"><ele>355.0</ele><time>2026-03-30T14:39:19Z</time></trkpt><trkpt lat="41.959410249701584" lon="-0.49128223609951643"><ele>355.0</ele><time>2026-03-30T14:39:20Z</time></trkpt><trkpt lat="41.959453408310374" lon="-0.4916012126970121"><ele>355.0</ele><time>2026-03-30T14:39:21Z</time></trkpt><trkpt lat="41.95950453336221" lon="-0.4919199544440836"><ele>355.0</ele><time>2026-03-30T14:39:22Z</time></trkpt><trkpt lat="41.959550157094014" lon="-0.49224217805344106"><ele>355.0</ele><time>2026-03-30T14:39:23Z</time></trkpt><trkpt lat="41.95959717417097" lon="-0.49255742372157796"><ele>355.0</ele><time>2026-03-30T14:39:24Z</time></trkpt><trkpt lat="41.959639012266784" lon="-0.4928685975259261"><ele>355.0</ele><time>2026-03-30T14:39:25Z</time></trkpt><trkpt lat="41.959679624963776" lon="-0.4931834461223745"><ele>355.0</ele><time>2026-03-30T14:39:26Z</time></trkpt><trkpt lat="41.95974127255888" lon="-0.4934942530067174"><ele>356.0</ele><time>2026-03-30T14:39:27Z</time></trkpt><trkpt lat="41.95985739807408" lon="-0.4937846570054194"><ele>357.0</ele><time>2026-03-30T14:39:28Z</time></trkpt><trkpt lat="41.959999686947526" lon="-0.4940611041132805"><ele>357.0</ele><time>2026-03-30T14:39:29Z</time></trkpt><trkpt lat="41.96014933968211" lon="-0.4943359520765899"><ele>357.0</ele><time>2026-03-30T14:39:30Z</time></trkpt><trkpt lat="41.96031952059524" lon="-0.49458900142175205"><ele>357.0</ele><time>2026-03-30T14:39:31Z</time></trkpt><trkpt lat="41.96050214765562" lon="-0.49481923305443437"><ele>357.0</ele><time>2026-03-30T14:39:32Z</time></trkpt><trkpt lat="41.96069140796429" lon="-0.4950393885883527"><ele>357.0</ele><time>2026-03-30T14:39:33Z</time></trkpt><trkpt lat="41.960880266670465" lon="-0.4952525510592094"><ele>357.0</ele><time>2026-03-30T14:39:34Z</time></trkpt><trkpt lat="41.961064093416425" lon="-0.4954851478523215"><ele>357.0</ele><time>2026-03-30T14:39:35Z</time></trkpt><trkpt lat="41.96124374565302" lon="-0.4957193571061534"><ele>357.0</ele><time>2026-03-30T14:39:36Z</time></trkpt><trkpt lat="41.96142000918042" lon="-0.49593354450050386"><ele>357.0</ele><time>2026-03-30T14:39:37Z</time></trkpt><trkpt lat="41.961589974191774" lon="-0.4961494744092527"><ele>357.0</ele><time>2026-03-30T14:39:38Z</time></trkpt><trkpt lat="41.96175044021764" lon="-0.49638036601296964"><ele>358.0</ele><time>2026-03-30T14:39:39Z</time></trkpt><trkpt lat="41.961894969232794" lon="-0.49662413724378934"><ele>359.0</ele><time>2026-03-30T14:39:40Z</time></trkpt><trkpt lat="41.962034207623304" lon="-0.49688134685016017"><ele>360.0</ele><time>2026-03-30T14:39:41Z</time></trkpt><trkpt lat="41.962164422934116" lon="-0.497149971595259"><ele>361.0</ele><time>2026-03-30T14:39:42Z</time></trkpt><trkpt lat="41.962282619479566" lon="-0.49743066034234756"><ele>361.0</ele><time>2026-03-30T14:39:43Z</time></trkpt><trkpt lat="41.962394564223295" lon="-0.4977185897113193"><ele>361.0</ele><time>2026-03-30T14:39:44Z</time></trkpt><trkpt lat="41.962504292810806" lon="-0.49800791635441966"><ele>359.5</ele><time>2026-03-30T14:39:45Z</time></trkpt><trkpt lat="41.962599032480014" lon="-0.49832529119862795"><ele>358.0</ele><time>2026-03-30T14:39:46Z</time></trkpt><trkpt lat="41.962678998189276" lon="-0.49865584217854214"><ele>359.0</ele><time>2026-03-30T14:39:47Z</time></trkpt><trkpt lat="41.96275354239694" lon="-0.49898393370606864"><ele>360.0</ele><time>2026-03-30T14:39:48Z</time></trkpt><trkpt lat="41.96282072422363" lon="-0.4993187121020441"><ele>359.5</ele><time>2026-03-30T14:39:49Z</time></trkpt><trkpt lat="41.962891467679654" lon="-0.49966045395925734"><ele>359.0</ele><time>2026-03-30T14:39:50Z</time></trkpt><trkpt lat="41.96296753545029" lon="-0.5000015584032969"><ele>359.0</ele><time>2026-03-30T14:39:51Z</time></trkpt><trkpt lat="41.963039587652126" lon="-0.5003441331833346"><ele>359.0</ele><time>2026-03-30T14:39:52Z</time></trkpt><trkpt lat="41.963114986086545" lon="-0.5006803490496262"><ele>359.0</ele><time>2026-03-30T14:39:53Z</time></trkpt><trkpt lat="41.963195216241964" lon="-0.5010110375207327"><ele>359.0</ele><time>2026-03-30T14:39:54Z</time></trkpt><trkpt lat="41.96328326195046" lon="-0.5013273109183213"><ele>359.5</ele><time>2026-03-30T14:39:55Z</time></trkpt><trkpt lat="41.963377051655286" lon="-0.5016291899468451"><ele>360.0</ele><time>2026-03-30T14:39:56Z</time></trkpt><trkpt lat="41.963481175873554" lon="-0.5019249419004809"><ele>360.0</ele><time>2026-03-30T14:39:57Z</time></trkpt><trkpt lat="41.96359701945335" lon="-0.5022067480794546"><ele>360.0</ele><time>2026-03-30T14:39:58Z</time></trkpt><trkpt lat="41.963714552729584" lon="-0.5024842685681029"><ele>360.0</ele><time>2026-03-30T14:39:59Z</time></trkpt><trkpt lat="41.963830082491995" lon="-0.5027534238315187"><ele>360.0</ele><time>2026-03-30T14:40:00Z</time></trkpt><trkpt lat="41.96394678187928" lon="-0.503022450559026"><ele>360.0</ele><time>2026-03-30T14:40:01Z</time></trkpt><trkpt lat="41.96405850425933" lon="-0.5033000154527748"><ele>360.0</ele><time>2026-03-30T14:40:02Z</time></trkpt><trkpt lat="41.964172762533316" lon="-0.5035898456463732"><ele>360.5</ele><time>2026-03-30T14:40:03Z</time></trkpt><trkpt lat="41.96429982558035" lon="-0.5038898817176841"><ele>361.0</ele><time>2026-03-30T14:40:04Z</time></trkpt><trkpt lat="41.96443832465223" lon="-0.5041804451312204"><ele>361.0</ele><time>2026-03-30T14:40:05Z</time></trkpt><trkpt lat="41.96456048308916" lon="-0.504475454452907"><ele>361.0</ele><time>2026-03-30T14:40:06Z</time></trkpt><trkpt lat="41.96467856762993" lon="-0.5047732287905219"><ele>361.5</ele><time>2026-03-30T14:40:07Z</time></trkpt><trkpt lat="41.96480366438174" lon="-0.5050606484139811"><ele>362.0</ele><time>2026-03-30T14:40:08Z</time></trkpt><trkpt lat="41.96493245323843" lon="-0.5053529134713525"><ele>362.0</ele><time>2026-03-30T14:40:09Z</time></trkpt><trkpt lat="41.96505481636588" lon="-0.505640594791208"><ele>362.0</ele><time>2026-03-30T14:40:10Z</time></trkpt><trkpt lat="41.965172981935346" lon="-0.5059456338752324"><ele>362.0</ele><time>2026-03-30T14:40:11Z</time></trkpt><trkpt lat="41.96529545658928" lon="-0.5062434727090109"><ele>362.0</ele><time>2026-03-30T14:40:12Z</time></trkpt><trkpt lat="41.965424254341606" lon="-0.5065451575877364"><ele>362.0</ele><time>2026-03-30T14:40:13Z</time></trkpt><trkpt lat="41.96554995008758" lon="-0.5068322648375971"><ele>362.0</ele><time>2026-03-30T14:40:14Z</time></trkpt><trkpt lat="41.96567114565571" lon="-0.5071293756740489"><ele>362.5</ele><time>2026-03-30T14:40:15Z</time></trkpt><trkpt lat="41.96578845869281" lon="-0.5074170309312414"><ele>363.0</ele><time>2026-03-30T14:40:16Z</time></trkpt><trkpt lat="41.96590345974495" lon="-0.507702351586321"><ele>364.0</ele><time>2026-03-30T14:40:17Z</time></trkpt><trkpt lat="41.96602179413515" lon="-0.5079854002941034"><ele>365.0</ele><time>2026-03-30T14:40:18Z</time></trkpt><trkpt lat="41.9661402070648" lon="-0.5082597848404284"><ele>365.0</ele><time>2026-03-30T14:40:19Z</time></trkpt><trkpt lat="41.9662547417464" lon="-0.5085276610959367"><ele>365.0</ele><time>2026-03-30T14:40:20Z</time></trkpt><trkpt lat="41.966365515923904" lon="-0.5087979739406561"><ele>366.0</ele><time>2026-03-30T14:40:21Z</time></trkpt><trkpt lat="41.96647574733882" lon="-0.5090636485636815"><ele>367.0</ele><time>2026-03-30T14:40:22Z</time></trkpt><trkpt lat="41.966585653656125" lon="-0.5093283474526781"><ele>368.0</ele><time>2026-03-30T14:40:23Z</time></trkpt><trkpt lat="41.96669590703499" lon="-0.5095895566498162"><ele>369.0</ele><time>2026-03-30T14:40:24Z</time></trkpt><trkpt lat="41.96680832514712" lon="-0.5098513908721499"><ele>370.0</ele><time>2026-03-30T14:40:25Z</time></trkpt><trkpt lat="41.96691915246187" lon="-0.5101191071262766"><ele>370.0</ele><time>2026-03-30T14:40:26Z</time></trkpt><trkpt lat="41.96702963782636" lon="-0.5103920324562126"><ele>370.0</ele><time>2026-03-30T14:40:27Z</time></trkpt><trkpt lat="41.967142093751505" lon="-0.5106618756944221"><ele>368.5</ele><time>2026-03-30T14:40:28Z</time></trkpt><trkpt lat="41.96725631331689" lon="-0.510938074870194"><ele>367.0</ele><time>2026-03-30T14:40:29Z</time></trkpt><trkpt lat="41.96737539632414" lon="-0.511229520169105"><ele>367.5</ele><time>2026-03-30T14:40:30Z</time></trkpt><trkpt lat="41.96749635382784" lon="-0.5115311492911832"><ele>368.0</ele><time>2026-03-30T14:40:31Z</time></trkpt><trkpt lat="41.96760520596171" lon="-0.5118484439269133"><ele>365.0</ele><time>2026-03-30T14:40:32Z</time></trkpt><trkpt lat="41.96768163457991" lon="-0.5121943787650871"><ele>362.0</ele><time>2026-03-30T14:40:33Z</time></trkpt><trkpt lat="41.96773388420535" lon="-0.512541573035616"><ele>362.0</ele><time>2026-03-30T14:40:34Z</time></trkpt><trkpt lat="41.96776591052125" lon="-0.5128882740275504"><ele>362.0</ele><time>2026-03-30T14:40:35Z</time></trkpt><trkpt lat="41.96777484160761" lon="-0.5132413371793602"><ele>363.5</ele><time>2026-03-30T14:40:36Z</time></trkpt><trkpt lat="41.96775746326051" lon="-0.513586986279261"><ele>365.0</ele><time>2026-03-30T14:40:37Z</time></trkpt><trkpt lat="41.96771768604432" lon="-0.5139249095232548"><ele>365.0</ele><time>2026-03-30T14:40:38Z</time></trkpt><trkpt lat="41.96766411739134" lon="-0.5142583468221631"><ele>365.0</ele><time>2026-03-30T14:40:39Z</time></trkpt><trkpt lat="41.9676323016963" lon="-0.5145858415966502"><ele>365.5</ele><time>2026-03-30T14:40:40Z</time></trkpt><trkpt lat="41.96758746858302" lon="-0.5149213029709641"><ele>366.0</ele><time>2026-03-30T14:40:41Z</time></trkpt><trkpt lat="41.96756009860405" lon="-0.5152632959644781"><ele>367.0</ele><time>2026-03-30T14:40:42Z</time></trkpt><trkpt lat="41.96756140864254" lon="-0.5156060189032652"><ele>368.0</ele><time>2026-03-30T14:40:43Z</time></trkpt><trkpt lat="41.967595520615106" lon="-0.515942961647802"><ele>366.5</ele><time>2026-03-30T14:40:44Z</time></trkpt><trkpt lat="41.96765450853545" lon="-0.5162759678595068"><ele>365.0</ele><time>2026-03-30T14:40:45Z</time></trkpt><trkpt lat="41.96773208785688" lon="-0.5165966139170487"><ele>365.0</ele><time>2026-03-30T14:40:46Z</time></trkpt><trkpt lat="41.96782780258367" lon="-0.5169047331632296"><ele>365.0</ele><time>2026-03-30T14:40:47Z</time></trkpt><trkpt lat="41.96794405705843" lon="-0.5172052055919366"><ele>366.0</ele><time>2026-03-30T14:40:48Z</time></trkpt><trkpt lat="41.968083967708715" lon="-0.5174903870759311"><ele>367.0</ele><time>2026-03-30T14:40:49Z</time></trkpt><trkpt lat="41.968244749824954" lon="-0.5177546600080095"><ele>367.5</ele><time>2026-03-30T14:40:50Z</time></trkpt><trkpt lat="41.96841867164434" lon="-0.5180080527691321"><ele>368.0</ele><time>2026-03-30T14:40:51Z</time></trkpt><trkpt lat="41.96858485819779" lon="-0.5182763634698341"><ele>368.0</ele><time>2026-03-30T14:40:52Z</time></trkpt><trkpt lat="41.968745624587456" lon="-0.5185443229142882"><ele>368.0</ele><time>2026-03-30T14:40:53Z</time></trkpt><trkpt lat="41.96890851937143" lon="-0.5188081827021082"><ele>368.5</ele><time>2026-03-30T14:40:54Z</time></trkpt><trkpt lat="41.96907184271055" lon="-0.5190710389120575"><ele>369.0</ele><time>2026-03-30T14:40:55Z</time></trkpt><trkpt lat="41.96922592311611" lon="-0.5193413602607964"><ele>369.5</ele><time>2026-03-30T14:40:56Z</time></trkpt><trkpt lat="41.969372541063315" lon="-0.5196161897680075"><ele>370.0</ele><time>2026-03-30T14:40:57Z</time></trkpt><trkpt lat="41.96950245134571" lon="-0.5198970316585276"><ele>370.0</ele><time>2026-03-30T14:40:58Z</time></trkpt><trkpt lat="41.96960459653946" lon="-0.5201902001339601"><ele>370.0</ele><time>2026-03-30T14:40:59Z</time></trkpt><trkpt lat="41.96968317292833" lon="-0.52049316556107"><ele>370.5</ele><time>2026-03-30T14:41:00Z</time></trkpt><trkpt lat="41.96973804637082" lon="-0.520808539197552"><ele>371.0</ele><time>2026-03-30T14:41:01Z</time></trkpt><trkpt lat="41.969773014678196" lon="-0.5211375697453778"><ele>370.5</ele><time>2026-03-30T14:41:02Z</time></trkpt><trkpt lat="41.96979522297223" lon="-0.5214710779690881"><ele>370.0</ele><time>2026-03-30T14:41:03Z</time></trkpt><trkpt lat="41.96982316559044" lon="-0.5218066130053041"><ele>370.0</ele><time>2026-03-30T14:41:04Z</time></trkpt><trkpt lat="41.96987726162331" lon="-0.5221312857019921"><ele>370.0</ele><time>2026-03-30T14:41:05Z</time></trkpt><trkpt lat="41.96992797414969" lon="-0.5224452438141305"><ele>370.0</ele><time>2026-03-30T14:41:06Z</time></trkpt><trkpt lat="41.96996635347135" lon="-0.5227721202083349"><ele>370.0</ele><time>2026-03-30T14:41:07Z</time></trkpt><trkpt lat="41.97000859953131" lon="-0.5230954704789429"><ele>370.0</ele><time>2026-03-30T14:41:08Z</time></trkpt><trkpt lat="41.9700496724839" lon="-0.5234119463570376"><ele>370.0</ele><time>2026-03-30T14:41:09Z</time></trkpt><trkpt lat="41.970086919895195" lon="-0.5237269546832861"><ele>372.0</ele><time>2026-03-30T14:41:10Z</time></trkpt><trkpt lat="41.97012587755266" lon="-0.5240417447280687"><ele>374.0</ele><time>2026-03-30T14:41:11Z</time></trkpt><trkpt lat="41.97017188588434" lon="-0.5243822350367296"><ele>374.5</ele><time>2026-03-30T14:41:12Z</time></trkpt><trkpt lat="41.97021644139284" lon="-0.5247211802111114"><ele>375.0</ele><time>2026-03-30T14:41:13Z</time></trkpt><trkpt lat="41.970255045075454" lon="-0.5250389653884817"><ele>375.0</ele><time>2026-03-30T14:41:14Z</time></trkpt><trkpt lat="41.97028791891887" lon="-0.5253517826298617"><ele>375.0</ele><time>2026-03-30T14:41:15Z</time></trkpt><trkpt lat="41.97032330824252" lon="-0.5256561161632749"><ele>374.6666666666667</ele><time>2026-03-30T14:41:16Z</time></trkpt><trkpt lat="41.97036395487327" lon="-0.5259513956587828"><ele>374.33333333333337</ele><time>2026-03-30T14:41:17Z</time></trkpt><trkpt lat="41.97040625561624" lon="-0.526239524918553"><ele>374.0</ele><time>2026-03-30T14:41:18Z</time></trkpt><trkpt lat="41.97044645179963" lon="-0.5265128378811708"><ele>374.0</ele><time>2026-03-30T14:41:19Z</time></trkpt><trkpt lat="41.970471420741255" lon="-0.5267521050652537"><ele>374.0</ele><time>2026-03-30T14:41:20Z</time></trkpt><trkpt lat="41.97049468618286" lon="-0.5269896528710788"><ele>374.0</ele><time>2026-03-30T14:41:21Z</time></trkpt><trkpt lat="41.970516014044414" lon="-0.5272050349822319"><ele>374.0</ele><time>2026-03-30T14:41:22Z</time></trkpt><trkpt lat="41.97053123613785" lon="-0.5273922340611502"><ele>374.0</ele><time>2026-03-30T14:41:23Z</time></trkpt><trkpt lat="41.97053736583454" lon="-0.5275677028522234"><ele>374.0</ele><time>2026-03-30T14:41:24Z</time></trkpt><trkpt lat="41.97054109920421" lon="-0.5277267288814774"><ele>374.0</ele><time>2026-03-30T14:41:25Z</time></trkpt><trkpt lat="41.970560878621235" lon="-0.5278575443461863"><ele>374.79999999999995</ele><time>2026-03-30T14:41:26Z</time></trkpt><trkpt lat="41.97060599757952" lon="-0.5279751791012124"><ele>375.59999999999997</ele><time>2026-03-30T14:41:27Z</time></trkpt><trkpt lat="41.97068449181192" lon="-0.5280746835386394"><ele>376.4</ele><time>2026-03-30T14:41:28Z</time></trkpt><trkpt lat="41.97075665436011" lon="-0.528164144537015"><ele>377.2</ele><time>2026-03-30T14:41:29Z</time></trkpt><trkpt lat="41.970793358702494" lon="-0.5282991801585254"><ele>378.0</ele><time>2026-03-30T14:41:30Z</time></trkpt><trkpt lat="41.9707652233348" lon="-0.528491659972415"><ele>378.0</ele><time>2026-03-30T14:41:31Z</time></trkpt><trkpt lat="41.97080957854619" lon="-0.5286945577300647"><ele>378.0</ele><time>2026-03-30T14:41:32Z</time></trkpt><trkpt lat="41.970908111877655" lon="-0.5288660601826831"><ele>378.0</ele><time>2026-03-30T14:41:33Z</time></trkpt><trkpt lat="41.971038270250034" lon="-0.5290200689579977"><ele>378.3333333333333</ele><time>2026-03-30T14:41:34Z</time></trkpt><trkpt lat="41.97117986983169" lon="-0.5291568178009626"><ele>378.66666666666663</ele><time>2026-03-30T14:41:35Z</time></trkpt><trkpt lat="41.97132247850331" lon="-0.529298144149784"><ele>379.0</ele><time>2026-03-30T14:41:36Z</time></trkpt><trkpt lat="41.971460088449135" lon="-0.5294525515253925"><ele>379.0</ele><time>2026-03-30T14:41:37Z</time></trkpt><trkpt lat="41.97159209037854" lon="-0.5296092644385753"><ele>379.0</ele><time>2026-03-30T14:41:38Z</time></trkpt><trkpt lat="41.971718302462875" lon="-0.5297545032389424"><ele>379.0</ele><time>2026-03-30T14:41:39Z</time></trkpt><trkpt lat="41.97184300366211" lon="-0.5298931715636201"><ele>378.0</ele><time>2026-03-30T14:41:40Z</time></trkpt><trkpt lat="41.97196514133555" lon="-0.530026923458534"><ele>377.0</ele><time>2026-03-30T14:41:41Z</time></trkpt><trkpt lat="41.97208412570789" lon="-0.5301581595173395"><ele>376.0</ele><time>2026-03-30T14:41:42Z</time></trkpt><trkpt lat="41.97220602334565" lon="-0.5302694587373578"><ele>376.0</ele><time>2026-03-30T14:41:43Z</time></trkpt><trkpt lat="41.97233500045882" lon="-0.5303685999209011"><ele>376.0</ele><time>2026-03-30T14:41:44Z</time></trkpt><trkpt lat="41.97247039915958" lon="-0.5304474973306125"><ele>376.0</ele><time>2026-03-30T14:41:45Z</time></trkpt><trkpt lat="41.97261068101748" lon="-0.5305191618193742"><ele>376.0</ele><time>2026-03-30T14:41:46Z</time></trkpt><trkpt lat="41.972759190962336" lon="-0.5305916233246318"><ele>377.0</ele><time>2026-03-30T14:41:47Z</time></trkpt><trkpt lat="41.97292972275852" lon="-0.5306711890803703"><ele>378.0</ele><time>2026-03-30T14:41:48Z</time></trkpt><trkpt lat="41.973114103485806" lon="-0.5307509846754176"><ele>379.0</ele><time>2026-03-30T14:41:49Z</time></trkpt><trkpt lat="41.97329753863779" lon="-0.53083694021662"><ele>378.66666666666663</ele><time>2026-03-30T14:41:50Z</time></trkpt><trkpt lat="41.9734777086967" lon="-0.5309387803775268"><ele>378.3333333333333</ele><time>2026-03-30T14:41:51Z</time></trkpt><trkpt lat="41.9736527952394" lon="-0.5310501334202669"><ele>378.0</ele><time>2026-03-30T14:41:52Z</time></trkpt><trkpt lat="41.9738180063691" lon="-0.5311766263196189"><ele>378.3333333333333</ele><time>2026-03-30T14:41:53Z</time></trkpt><trkpt lat="41.973983962662786" lon="-0.53131488197633"><ele>378.66666666666663</ele><time>2026-03-30T14:41:54Z</time></trkpt><trkpt lat="41.974150115212176" lon="-0.5314631652270514"><ele>379.0</ele><time>2026-03-30T14:41:55Z</time></trkpt><trkpt lat="41.97430226679649" lon="-0.5316258324220767"><ele>379.0</ele><time>2026-03-30T14:41:56Z</time></trkpt><trkpt lat="41.97443915809983" lon="-0.5318037691228926"><ele>379.0</ele><time>2026-03-30T14:41:57Z</time></trkpt><trkpt lat="41.97456889628537" lon="-0.5320069547193259"><ele>379.0</ele><time>2026-03-30T14:41:58Z</time></trkpt><trkpt lat="41.97467492631292" lon="-0.5322234667505413"><ele>380.0</ele><time>2026-03-30T14:41:59Z</time></trkpt><trkpt lat="41.97477907681264" lon="-0.5324394208763311"><ele>381.0</ele><time>2026-03-30T14:42:00Z</time></trkpt><trkpt lat="41.974874114915316" lon="-0.532639109981754"><ele>382.0</ele><time>2026-03-30T14:42:01Z</time></trkpt><trkpt lat="41.97496179484611" lon="-0.5328307746546279"><ele>382.0</ele><time>2026-03-30T14:42:02Z</time></trkpt><trkpt lat="41.97503431888253" lon="-0.5330198826061159"><ele>382.0</ele><time>2026-03-30T14:42:03Z</time></trkpt><trkpt lat="41.975109521306784" lon="-0.5332082802817473"><ele>382.0</ele><time>2026-03-30T14:42:04Z</time></trkpt><trkpt lat="41.975190598897335" lon="-0.5333820865663592"><ele>382.0</ele><time>2026-03-30T14:42:05Z</time></trkpt><trkpt lat="41.975259047977225" lon="-0.5335444719497164"><ele>382.0</ele><time>2026-03-30T14:42:06Z</time></trkpt><trkpt lat="41.97532550242522" lon="-0.5337158249740572"><ele>382.0</ele><time>2026-03-30T14:42:07Z</time></trkpt><trkpt lat="41.975399205583116" lon="-0.5338939765134572"><ele>382.0</ele><time>2026-03-30T14:42:08Z</time></trkpt><trkpt lat="41.97547225748991" lon="-0.5340729774063386"><ele>382.0</ele><time>2026-03-30T14:42:09Z</time></trkpt><trkpt lat="41.97554400719035" lon="-0.5342514763302486"><ele>382.0</ele><time>2026-03-30T14:42:10Z</time></trkpt><trkpt lat="41.97561710649895" lon="-0.534425887651029"><ele>382.0</ele><time>2026-03-30T14:42:11Z</time></trkpt><trkpt lat="41.97569011471983" lon="-0.5346018417150181"><ele>382.0</ele><time>2026-03-30T14:42:12Z</time></trkpt><trkpt lat="41.97576290074488" lon="-0.5347791119465147"><ele>382.0</ele><time>2026-03-30T14:42:13Z</time></trkpt><trkpt lat="41.975835227098656" lon="-0.534956644531877"><ele>382.0</ele><time>2026-03-30T14:42:14Z</time></trkpt><trkpt lat="41.97590857990287" lon="-0.5351325804456362"><ele>382.0</ele><time>2026-03-30T14:42:15Z</time></trkpt><trkpt lat="41.97598264448747" lon="-0.5353044330713387"><ele>382.0</ele><time>2026-03-30T14:42:16Z</time></trkpt><trkpt lat="41.97605598095829" lon="-0.5354758417311389"><ele>382.25</ele><time>2026-03-30T14:42:17Z</time></trkpt><trkpt lat="41.97612675834409" lon="-0.5356454385445985"><ele>382.5</ele><time>2026-03-30T14:42:18Z</time></trkpt><trkpt lat="41.97619528491105" lon="-0.5358125851368591"><ele>382.75</ele><time>2026-03-30T14:42:19Z</time></trkpt><trkpt lat="41.97626382962739" lon="-0.5359781007425006"><ele>383.0</ele><time>2026-03-30T14:42:20Z</time></trkpt><trkpt lat="41.97633081024829" lon="-0.5361392914151979"><ele>383.5</ele><time>2026-03-30T14:42:21Z</time></trkpt><trkpt lat="41.97639167938638" lon="-0.5362876059524868"><ele>384.0</ele><time>2026-03-30T14:42:22Z</time></trkpt><trkpt lat="41.9764482684101" lon="-0.5364258661817886"><ele>384.5</ele><time>2026-03-30T14:42:23Z</time></trkpt><trkpt lat="41.97650437756395" lon="-0.5365630215104854"><ele>385.0</ele><time>2026-03-30T14:42:24Z</time></trkpt><trkpt lat="41.976560299239424" lon="-0.5367028560310327"><ele>385.0</ele><time>2026-03-30T14:42:25Z</time></trkpt><trkpt lat="41.97659080842196" lon="-0.5368479951500944"><ele>385.0</ele><time>2026-03-30T14:42:26Z</time></trkpt><trkpt lat="41.976595113485985" lon="-0.5370018719065544"><ele>385.0</ele><time>2026-03-30T14:42:27Z</time></trkpt><trkpt lat="41.97657689451508" lon="-0.5371504278358108"><ele>385.0</ele><time>2026-03-30T14:42:28Z</time></trkpt><trkpt lat="41.97655492966683" lon="-0.5372763166429159"><ele>385.0</ele><time>2026-03-30T14:42:29Z</time></trkpt><trkpt lat="41.97653709158102" lon="-0.5373829028148132"><ele>385.00000000000006</ele><time>2026-03-30T14:42:30Z</time></trkpt><trkpt lat="41.976518005256125" lon="-0.5374793177975129"><ele>385.0</ele><time>2026-03-30T14:42:31Z</time></trkpt><trkpt lat="41.976507468925355" lon="-0.5375820686942155"><ele>385.0</ele><time>2026-03-30T14:42:32Z</time></trkpt><trkpt lat="41.97651531558739" lon="-0.5376981580475201"><ele>385.0</ele><time>2026-03-30T14:42:33Z</time></trkpt><trkpt lat="41.976558749399466" lon="-0.5378072492313478"><ele>385.00000000000006</ele><time>2026-03-30T14:42:34Z</time></trkpt><trkpt lat="41.976631868848955" lon="-0.5378986304480964"><ele>385.0</ele><time>2026-03-30T14:42:35Z</time></trkpt><trkpt lat="41.976723905761645" lon="-0.5379630704128171"><ele>385.75</ele><time>2026-03-30T14:42:36Z</time></trkpt><trkpt lat="41.97682293706027" lon="-0.5380092377147229"><ele>386.5</ele><time>2026-03-30T14:42:37Z</time></trkpt><trkpt lat="41.97693433398496" lon="-0.5380373739779805"><ele>387.25</ele><time>2026-03-30T14:42:38Z</time></trkpt><trkpt lat="41.977052552536236" lon="-0.5380517267127701"><ele>388.0</ele><time>2026-03-30T14:42:39Z</time></trkpt><trkpt lat="41.9771724092665" lon="-0.5380619450291854"><ele>388.0</ele><time>2026-03-30T14:42:40Z</time></trkpt><trkpt lat="41.9772917692454" lon="-0.5380729885472504"><ele>388.0</ele><time>2026-03-30T14:42:41Z</time></trkpt><trkpt lat="41.9773995028217" lon="-0.5380750997304111"><ele>388.0</ele><time>2026-03-30T14:42:42Z</time></trkpt><trkpt lat="41.97750557386475" lon="-0.5380705813667045"><ele>388.0</ele><time>2026-03-30T14:42:43Z</time></trkpt><trkpt lat="41.97761152324167" lon="-0.5380794655334612"><ele>388.0</ele><time>2026-03-30T14:42:44Z</time></trkpt><trkpt lat="41.97771407053962" lon="-0.5380967245092424"><ele>387.4</ele><time>2026-03-30T14:42:45Z</time></trkpt><trkpt lat="41.97781590417758" lon="-0.5381133214645758"><ele>386.79999999999995</ele><time>2026-03-30T14:42:46Z</time></trkpt><trkpt lat="41.97791862227097" lon="-0.5381344635054508"><ele>386.2</ele><time>2026-03-30T14:42:47Z</time></trkpt><trkpt lat="41.97801943318067" lon="-0.5381519071583328"><ele>385.6</ele><time>2026-03-30T14:42:48Z</time></trkpt><trkpt lat="41.97811530900024" lon="-0.5381875528930586"><ele>385.0</ele><time>2026-03-30T14:42:49Z</time></trkpt><trkpt lat="41.97821538835664" lon="-0.5382536174013772"><ele>385.0</ele><time>2026-03-30T14:42:50Z</time></trkpt><trkpt lat="41.97829994211427" lon="-0.538360307574678"><ele>385.0</ele><time>2026-03-30T14:42:51Z</time></trkpt><trkpt lat="41.978366323770736" lon="-0.5384858147883366"><ele>385.0</ele><time>2026-03-30T14:42:52Z</time></trkpt><trkpt lat="41.978416030347674" lon="-0.5386265375416451"><ele>385.0</ele><time>2026-03-30T14:42:53Z</time></trkpt><trkpt lat="41.97845733772726" lon="-0.5387587531026081"><ele>384.6666666666667</ele><time>2026-03-30T14:42:54Z</time></trkpt><trkpt lat="41.9784937757464" lon="-0.5388610410750786"><ele>384.33333333333337</ele><time>2026-03-30T14:42:55Z</time></trkpt><trkpt lat="41.978531074739365" lon="-0.5389476332187372"><ele>384.0</ele><time>2026-03-30T14:42:56Z</time></trkpt><trkpt lat="41.97856349889682" lon="-0.5390215926817677"><ele>383.6666666666667</ele><time>2026-03-30T14:42:57Z</time></trkpt><trkpt lat="41.97860314027258" lon="-0.539134595242006"><ele>383.33333333333337</ele><time>2026-03-30T14:42:59Z</time></trkpt><trkpt lat="41.97863556343352" lon="-0.5392265891307858"><ele>383.0</ele><time>2026-03-30T14:43:02Z</time></trkpt><trkpt lat="41.97866647698822" lon="-0.5393066229700159"><ele>383.0</ele><time>2026-03-30T14:43:05Z</time></trkpt><trkpt lat="41.97871065684415" lon="-0.5393944732596465"><ele>383.0</ele><time>2026-03-30T14:43:08Z</time></trkpt><trkpt lat="41.97873871115999" lon="-0.5394734116521023"><ele>383.0</ele><time>2026-03-30T14:43:10Z</time></trkpt><trkpt lat="41.978766885179574" lon="-0.5395505637282708"><ele>383.0</ele><time>2026-03-30T14:43:11Z</time></trkpt><trkpt lat="41.97880160771722" lon="-0.5396467234544523"><ele>383.0</ele><time>2026-03-30T14:43:12Z</time></trkpt><trkpt lat="41.97883839332572" lon="-0.5397361080925414"><ele>383.0</ele><time>2026-03-30T14:43:13Z</time></trkpt><trkpt lat="41.97886836706747" lon="-0.5398133301110153"><ele>383.0</ele><time>2026-03-30T14:43:14Z</time></trkpt><trkpt lat="41.97892444720248" lon="-0.5399432671479413"><ele>383.0</ele><time>2026-03-30T14:43:16Z</time></trkpt><trkpt lat="41.9789654077883" lon="-0.5400562608965238"><ele>383.0</ele><time>2026-03-30T14:43:18Z</time></trkpt><trkpt lat="41.979020363311655" lon="-0.5402023040549313"><ele>383.0</ele><time>2026-03-30T14:43:20Z</time></trkpt><trkpt lat="41.97906838894758" lon="-0.5403259626672684"><ele>383.0</ele><time>2026-03-30T14:43:22Z</time></trkpt><trkpt lat="41.979124270972896" lon="-0.5404193406607091"><ele>383.0</ele><time>2026-03-30T14:43:24Z</time></trkpt><trkpt lat="41.978996469122855" lon="-0.5405754159369432"><ele>383.0</ele><time>2026-03-30T14:43:25Z</time></trkpt><trkpt lat="41.97893050681346" lon="-0.540682862354368"><ele>383.0</ele><time>2026-03-30T14:43:26Z</time></trkpt><trkpt lat="41.978872102612826" lon="-0.540802881965647"><ele>383.0</ele><time>2026-03-30T14:43:27Z</time></trkpt><trkpt lat="41.97881443336516" lon="-0.540904796613944"><ele>383.0</ele><time>2026-03-30T14:43:28Z</time></trkpt><trkpt lat="41.97876336242558" lon="-0.5410094341027918"><ele>383.0</ele><time>2026-03-30T14:43:29Z</time></trkpt><trkpt lat="41.978709132575794" lon="-0.5411119778830717"><ele>383.0</ele><time>2026-03-30T14:43:30Z</time></trkpt><trkpt lat="41.978660246083145" lon="-0.5412126075809497"><ele>383.0</ele><time>2026-03-30T14:43:31Z</time></trkpt><trkpt lat="41.978616310624886" lon="-0.5413141498946551"><ele>383.0</ele><time>2026-03-30T14:43:32Z</time></trkpt><trkpt lat="41.978581381476026" lon="-0.541417789153105"><ele>383.0</ele><time>2026-03-30T14:43:33Z</time></trkpt><trkpt lat="41.97855649423765" lon="-0.5415236546568736"><ele>383.0</ele><time>2026-03-30T14:43:34Z</time></trkpt><trkpt lat="41.97853965102011" lon="-0.5416089428136197"><ele>383.0</ele><time>2026-03-30T14:43:35Z</time></trkpt><trkpt lat="41.97852219163645" lon="-0.5416952671682945"><ele>383.0</ele><time>2026-03-30T14:43:38Z</time></trkpt><trkpt lat="41.97852065904967" lon="-0.5417970510656619"><ele>383.0</ele><time>2026-03-30T14:47:27Z</time></trkpt><trkpt lat="41.97851605644006" lon="-0.5418815693243869"><ele>383.0</ele><time>2026-03-30T14:53:28Z</time></trkpt><trkpt lat="41.9785291770139" lon="-0.5419703147643025"><ele>383.0</ele><time>2026-03-30T14:53:31Z</time></trkpt><trkpt lat="41.97856423237528" lon="-0.542052059542202"><ele>383.0</ele><time>2026-03-30T14:53:33Z</time></trkpt><trkpt lat="41.97854599483866" lon="-0.5421462505758265"><ele>383.0</ele><time>2026-03-30T14:53:35Z</time></trkpt><trkpt lat="41.97851396709379" lon="-0.5422472017632806"><ele>383.0</ele><time>2026-03-30T14:53:38Z</time></trkpt><trkpt lat="41.978497057011666" lon="-0.5423772036723853"><ele>383.0</ele><time>2026-03-30T14:53:41Z</time></trkpt><trkpt lat="41.97849358297588" lon="-0.5424876575818401"><ele>383.0</ele><time>2026-03-30T14:53:43Z</time></trkpt><trkpt lat="41.97849868619491" lon="-0.5425815417711161"><ele>383.0</ele><time>2026-03-30T14:53:45Z</time></trkpt><trkpt lat="41.97852484455599" lon="-0.542680224769174"><ele>383.0</ele><time>2026-03-30T14:53:47Z</time></trkpt><trkpt lat="41.97851461475647" lon="-0.5427755087073818"><ele>383.0</ele><time>2026-03-30T14:53:49Z</time></trkpt><trkpt lat="41.97853291381795" lon="-0.5428840679071492"><ele>383.0</ele><time>2026-03-30T14:53:52Z</time></trkpt><trkpt lat="41.978577758510426" lon="-0.5429602185637905"><ele>383.0</ele><time>2026-03-30T14:53:54Z</time></trkpt><trkpt lat="41.97863599690873" lon="-0.5430460204434728"><ele>383.0</ele><time>2026-03-30T14:53:56Z</time></trkpt><trkpt lat="41.97867077823814" lon="-0.5431284956775343"><ele>383.0</ele><time>2026-03-30T14:53:58Z</time></trkpt><trkpt lat="41.978711569177996" lon="-0.5432419234581144"><ele>383.0</ele><time>2026-03-30T14:54:00Z</time></trkpt><trkpt lat="41.978746898304905" lon="-0.5433665762546758"><ele>383.0</ele><time>2026-03-30T14:54:02Z</time></trkpt><trkpt lat="41.978824383805375" lon="-0.5434943518901932"><ele>383.0</ele><time>2026-03-30T14:54:04Z</time></trkpt><trkpt lat="41.97888439867531" lon="-0.5435991541825376"><ele>383.0</ele><time>2026-03-30T14:54:06Z</time></trkpt><trkpt lat="41.978943291129944" lon="-0.5436899711455228"><ele>383.0</ele><time>2026-03-30T14:54:08Z</time></trkpt><trkpt lat="41.97900505278443" lon="-0.5438078083275673"><ele>383.0</ele><time>2026-03-30T14:54:10Z</time></trkpt><trkpt lat="41.97905363079714" lon="-0.5438933589325136"><ele>383.0</ele><time>2026-03-30T14:54:11Z</time></trkpt><trkpt lat="41.979127017069" lon="-0.5440110934507668"><ele>382.6666666666667</ele><time>2026-03-30T14:54:12Z</time></trkpt><trkpt lat="41.979222311699225" lon="-0.544169501363498"><ele>382.3333333333333</ele><time>2026-03-30T14:54:13Z</time></trkpt><trkpt lat="41.979319203504716" lon="-0.5443312623049797"><ele>382.0</ele><time>2026-03-30T14:54:14Z</time></trkpt><trkpt lat="41.97941417125976" lon="-0.5444886421710202"><ele>382.0</ele><time>2026-03-30T14:54:15Z</time></trkpt><trkpt lat="41.97950687353607" lon="-0.5446324804225562"><ele>382.0</ele><time>2026-03-30T14:54:16Z</time></trkpt><trkpt lat="41.97958985075599" lon="-0.5447717311962853"><ele>382.0</ele><time>2026-03-30T14:54:17Z</time></trkpt><trkpt lat="41.97967570547917" lon="-0.5449207660765261"><ele>382.0</ele><time>2026-03-30T14:54:18Z</time></trkpt><trkpt lat="41.97976545090288" lon="-0.5450781844876842"><ele>382.0</ele><time>2026-03-30T14:54:19Z</time></trkpt><trkpt lat="41.97985510515456" lon="-0.5452278292384178"><ele>382.0</ele><time>2026-03-30T14:54:20Z</time></trkpt><trkpt lat="41.97994054330081" lon="-0.5453869372533521"><ele>382.0</ele><time>2026-03-30T14:54:21Z</time></trkpt><trkpt lat="41.980031020368116" lon="-0.5455590225958384"><ele>382.0</ele><time>2026-03-30T14:54:22Z</time></trkpt><trkpt lat="41.98012351500319" lon="-0.5457277947753149"><ele>382.0</ele><time>2026-03-30T14:54:23Z</time></trkpt><trkpt lat="41.98021670000746" lon="-0.545894488117016"><ele>382.0</ele><time>2026-03-30T14:54:24Z</time></trkpt><trkpt lat="41.98030907395008" lon="-0.5460586557302584"><ele>382.0</ele><time>2026-03-30T14:54:25Z</time></trkpt><trkpt lat="41.980402004312666" lon="-0.5462335468108647"><ele>382.0</ele><time>2026-03-30T14:54:26Z</time></trkpt><trkpt lat="41.980490459705145" lon="-0.5464134039261054"><ele>382.0</ele><time>2026-03-30T14:54:27Z</time></trkpt><trkpt lat="41.98058782321325" lon="-0.5465941669413173"><ele>382.0</ele><time>2026-03-30T14:54:28Z</time></trkpt><trkpt lat="41.98069504367264" lon="-0.5467907601311885"><ele>382.0</ele><time>2026-03-30T14:54:29Z</time></trkpt><trkpt lat="41.9808055372758" lon="-0.5469921207753188"><ele>382.0</ele><time>2026-03-30T14:54:30Z</time></trkpt><trkpt lat="41.980912488074416" lon="-0.5471933495945616"><ele>382.0</ele><time>2026-03-30T14:54:31Z</time></trkpt><trkpt lat="41.981023842633476" lon="-0.5474035786775834"><ele>382.3333333333333</ele><time>2026-03-30T14:54:32Z</time></trkpt><trkpt lat="41.9811382562741" lon="-0.5476135524210531"><ele>382.6666666666667</ele><time>2026-03-30T14:54:33Z</time></trkpt><trkpt lat="41.9812544306785" lon="-0.5478248326175813"><ele>383.0</ele><time>2026-03-30T14:54:34Z</time></trkpt><trkpt lat="41.98137832400378" lon="-0.5480509675065176"><ele>383.0</ele><time>2026-03-30T14:54:35Z</time></trkpt><trkpt lat="41.98150228446364" lon="-0.5482848815631205"><ele>383.0</ele><time>2026-03-30T14:54:36Z</time></trkpt><trkpt lat="41.98162936495116" lon="-0.5485187376893517"><ele>383.0</ele><time>2026-03-30T14:54:37Z</time></trkpt><trkpt lat="41.981755826407316" lon="-0.5487528709451901"><ele>383.0</ele><time>2026-03-30T14:54:38Z</time></trkpt><trkpt lat="41.9818826195349" lon="-0.5489884496940571"><ele>383.0</ele><time>2026-03-30T14:54:39Z</time></trkpt><trkpt lat="41.982012678220265" lon="-0.5492264172012359"><ele>383.0</ele><time>2026-03-30T14:54:40Z</time></trkpt><trkpt lat="41.98214426133694" lon="-0.5494637478347559"><ele>383.33333333333337</ele><time>2026-03-30T14:54:41Z</time></trkpt><trkpt lat="41.98227416400299" lon="-0.5497015397793479"><ele>383.6666666666667</ele><time>2026-03-30T14:54:42Z</time></trkpt><trkpt lat="41.982401598423735" lon="-0.5499347744272748"><ele>384.0</ele><time>2026-03-30T14:54:43Z</time></trkpt><trkpt lat="41.98252710559478" lon="-0.5501615168297075"><ele>384.33333333333337</ele><time>2026-03-30T14:54:44Z</time></trkpt><trkpt lat="41.98264736187247" lon="-0.550376911811445"><ele>384.6666666666667</ele><time>2026-03-30T14:54:45Z</time></trkpt><trkpt lat="41.982765497589206" lon="-0.5505892238915338"><ele>385.0</ele><time>2026-03-30T14:54:46Z</time></trkpt><trkpt lat="41.98288089430316" lon="-0.5507926921586724"><ele>385.0</ele><time>2026-03-30T14:54:47Z</time></trkpt><trkpt lat="41.98300433447026" lon="-0.5510099920190703"><ele>385.0</ele><time>2026-03-30T14:54:48Z</time></trkpt><trkpt lat="41.983127896555324" lon="-0.5512340960860593"><ele>385.0</ele><time>2026-03-30T14:54:49Z</time></trkpt><trkpt lat="41.9832557552191" lon="-0.5514524065358845"><ele>384.33333333333337</ele><time>2026-03-30T14:54:50Z</time></trkpt><trkpt lat="41.983387464496424" lon="-0.5516784211728962"><ele>383.6666666666667</ele><time>2026-03-30T14:54:51Z</time></trkpt><trkpt lat="41.983519959757054" lon="-0.5519128875962078"><ele>383.0</ele><time>2026-03-30T14:54:52Z</time></trkpt><trkpt lat="41.983652831805585" lon="-0.5521521791325937"><ele>383.0</ele><time>2026-03-30T14:54:53Z</time></trkpt><trkpt lat="41.98378632318535" lon="-0.5523884844106528"><ele>383.0</ele><time>2026-03-30T14:54:54Z</time></trkpt><trkpt lat="41.98392115767804" lon="-0.5526251676300455"><ele>383.0</ele><time>2026-03-30T14:54:55Z</time></trkpt><trkpt lat="41.98405370691438" lon="-0.5528574148520767"><ele>384.0</ele><time>2026-03-30T14:54:56Z</time></trkpt><trkpt lat="41.98418604687928" lon="-0.5530917040612093"><ele>385.0</ele><time>2026-03-30T14:54:57Z</time></trkpt><trkpt lat="41.98431556091659" lon="-0.5533220522565833"><ele>386.0</ele><time>2026-03-30T14:54:58Z</time></trkpt><trkpt lat="41.98444784372618" lon="-0.5535592635550639"><ele>385.66666666666663</ele><time>2026-03-30T14:54:59Z</time></trkpt><trkpt lat="41.98458082989837" lon="-0.5537959651515574"><ele>385.33333333333337</ele><time>2026-03-30T14:55:00Z</time></trkpt><trkpt lat="41.984714814697135" lon="-0.5540337310699021"><ele>385.0</ele><time>2026-03-30T14:55:01Z</time></trkpt><trkpt lat="41.98484732542813" lon="-0.5542681806023476"><ele>385.0</ele><time>2026-03-30T14:55:02Z</time></trkpt><trkpt lat="41.98498221055616" lon="-0.5544995514946871"><ele>385.0</ele><time>2026-03-30T14:55:03Z</time></trkpt><trkpt lat="41.985117641101034" lon="-0.5547290035303678"><ele>385.0</ele><time>2026-03-30T14:55:04Z</time></trkpt><trkpt lat="41.98525075016417" lon="-0.5549615961114429"><ele>385.33333333333337</ele><time>2026-03-30T14:55:05Z</time></trkpt><trkpt lat="41.98538127407963" lon="-0.555189650881358"><ele>385.66666666666663</ele><time>2026-03-30T14:55:06Z</time></trkpt><trkpt lat="41.98551435961565" lon="-0.5554275941616733"><ele>386.0</ele><time>2026-03-30T14:55:07Z</time></trkpt><trkpt lat="41.985647201682205" lon="-0.5556625853630777"><ele>386.0</ele><time>2026-03-30T14:55:08Z</time></trkpt><trkpt lat="41.98578255132475" lon="-0.5559064139559663"><ele>386.0</ele><time>2026-03-30T14:55:09Z</time></trkpt><trkpt lat="41.98591543570112" lon="-0.5561499879207001"><ele>385.0</ele><time>2026-03-30T14:55:10Z</time></trkpt><trkpt lat="41.98605240357106" lon="-0.5564008231400664"><ele>384.0</ele><time>2026-03-30T14:55:11Z</time></trkpt><trkpt lat="41.986191804498404" lon="-0.5566320262323452"><ele>384.0</ele><time>2026-03-30T14:55:12Z</time></trkpt><trkpt lat="41.986320604527215" lon="-0.556858965927635"><ele>384.0</ele><time>2026-03-30T14:55:13Z</time></trkpt><trkpt lat="41.98644566351825" lon="-0.5570815372683611"><ele>384.0</ele><time>2026-03-30T14:55:14Z</time></trkpt><trkpt lat="41.986572856183024" lon="-0.5573026203390087"><ele>384.0</ele><time>2026-03-30T14:55:15Z</time></trkpt><trkpt lat="41.98670050523363" lon="-0.5575189849367663"><ele>384.0</ele><time>2026-03-30T14:55:16Z</time></trkpt><trkpt lat="41.98682437058836" lon="-0.557738702263852"><ele>384.0</ele><time>2026-03-30T14:55:17Z</time></trkpt><trkpt lat="41.986946971767956" lon="-0.5579581334998871"><ele>384.33333333333337</ele><time>2026-03-30T14:55:18Z</time></trkpt><trkpt lat="41.9870710402141" lon="-0.55817532844371"><ele>384.6666666666667</ele><time>2026-03-30T14:55:19Z</time></trkpt><trkpt lat="41.98719386498731" lon="-0.5583873698346449"><ele>385.0</ele><time>2026-03-30T14:55:20Z</time></trkpt><trkpt lat="41.98731653260382" lon="-0.5586057616150598"><ele>385.0</ele><time>2026-03-30T14:55:21Z</time></trkpt><trkpt lat="41.98743389786528" lon="-0.5588193899256182"><ele>385.0</ele><time>2026-03-30T14:55:22Z</time></trkpt><trkpt lat="41.987552014503855" lon="-0.5590343891010388"><ele>385.0</ele><time>2026-03-30T14:55:23Z</time></trkpt><trkpt lat="41.98767160448722" lon="-0.5592409749946181"><ele>385.0</ele><time>2026-03-30T14:55:24Z</time></trkpt><trkpt lat="41.98777025255109" lon="-0.5594149258631183"><ele>385.0</ele><time>2026-03-30T14:55:25Z</time></trkpt><trkpt lat="41.98782963152794" lon="-0.5595154842184215"><ele>385.0</ele><time>2026-03-30T14:55:26Z</time></trkpt><trkpt lat="41.987884550827324" lon="-0.5596359184935941"><ele>385.0</ele><time>2026-03-30T14:55:28Z</time></trkpt><trkpt lat="41.98791386873797" lon="-0.5597286590138902"><ele>385.0</ele><time>2026-03-30T14:55:30Z</time></trkpt><trkpt lat="41.9879893893185" lon="-0.5597926839911366"><ele>385.1666666666667</ele><time>2026-03-30T14:55:33Z</time></trkpt><trkpt lat="41.988030892950654" lon="-0.5598567691681815"><ele>385.33333333333337</ele><time>2026-03-30T14:55:35Z</time></trkpt><trkpt lat="41.98808314959004" lon="-0.5599132510733438"><ele>385.5</ele><time>2026-03-30T14:55:37Z</time></trkpt><trkpt lat="41.988118362737566" lon="-0.5600158991373964"><ele>385.66666666666663</ele><time>2026-03-30T14:55:49Z</time></trkpt><trkpt lat="41.98817439445179" lon="-0.5601406316998095"><ele>385.8333333333333</ele><time>2026-03-30T14:55:51Z</time></trkpt><trkpt lat="41.98824225589227" lon="-0.5601927847963326"><ele>386.0</ele><time>2026-03-30T14:55:54Z</time></trkpt><trkpt lat="41.988295248574495" lon="-0.5603005669962223"><ele>385.99999999999994</ele><time>2026-03-30T14:55:57Z</time></trkpt><trkpt lat="41.98835103396081" lon="-0.5604086511466233"><ele>386.0</ele><time>2026-03-30T14:55:59Z</time></trkpt><trkpt lat="41.988404914764565" lon="-0.5604908727587632"><ele>386.0</ele><time>2026-03-30T14:56:01Z</time></trkpt><trkpt lat="41.98845787807786" lon="-0.5605773320963425"><ele>386.0</ele><time>2026-03-30T14:56:03Z</time></trkpt><trkpt lat="41.988523465847436" lon="-0.5607024650980617"><ele>385.99999999999994</ele><time>2026-03-30T14:56:10Z</time></trkpt><trkpt lat="41.98856145443903" lon="-0.5607816844306558"><ele>386.0</ele><time>2026-03-30T14:56:11Z</time></trkpt><trkpt lat="41.9885983982621" lon="-0.5608841009144441"><ele>386.0</ele><time>2026-03-30T14:56:12Z</time></trkpt><trkpt lat="41.98865210542798" lon="-0.5610126746755788"><ele>386.0</ele><time>2026-03-30T14:56:13Z</time></trkpt><trkpt lat="41.98874843444905" lon="-0.5611839507425217"><ele>386.0</ele><time>2026-03-30T14:56:14Z</time></trkpt><trkpt lat="41.98887016721278" lon="-0.5613861526766472"><ele>386.66666666666663</ele><time>2026-03-30T14:56:15Z</time></trkpt><trkpt lat="41.988991656828105" lon="-0.5615953877639677"><ele>387.33333333333337</ele><time>2026-03-30T14:56:16Z</time></trkpt><trkpt lat="41.989106964682804" lon="-0.5618032875631963"><ele>388.0</ele><time>2026-03-30T14:56:17Z</time></trkpt><trkpt lat="41.989255067068044" lon="-0.562060101903974"><ele>388.0</ele><time>2026-03-30T14:56:18Z</time></trkpt><trkpt lat="41.98941150661004" lon="-0.5623330351886705"><ele>388.0</ele><time>2026-03-30T14:56:19Z</time></trkpt><trkpt lat="41.98956277107023" lon="-0.5625990773983757"><ele>388.0</ele><time>2026-03-30T14:56:20Z</time></trkpt><trkpt lat="41.98971045662304" lon="-0.562867165052144"><ele>388.0</ele><time>2026-03-30T14:56:21Z</time></trkpt><trkpt lat="41.989874973150236" lon="-0.5631611019896382"><ele>387.0</ele><time>2026-03-30T14:56:22Z</time></trkpt><trkpt lat="41.99005160212871" lon="-0.5634699965678204"><ele>386.0</ele><time>2026-03-30T14:56:23Z</time></trkpt><trkpt lat="41.99023271414822" lon="-0.5637869847412779"><ele>386.0</ele><time>2026-03-30T14:56:24Z</time></trkpt><trkpt lat="41.99040094581937" lon="-0.5640836868045159"><ele>386.0</ele><time>2026-03-30T14:56:25Z</time></trkpt><trkpt lat="41.99056041941671" lon="-0.5643662995141355"><ele>386.0</ele><time>2026-03-30T14:56:26Z</time></trkpt><trkpt lat="41.99071468545733" lon="-0.5646446662134302"><ele>386.0</ele><time>2026-03-30T14:56:27Z</time></trkpt><trkpt lat="41.99087198598532" lon="-0.5649205760003686"><ele>386.0</ele><time>2026-03-30T14:56:28Z</time></trkpt><trkpt lat="41.991029569761935" lon="-0.5651949526225534"><ele>386.0</ele><time>2026-03-30T14:56:29Z</time></trkpt><trkpt lat="41.99118675858553" lon="-0.565467647278688"><ele>386.5</ele><time>2026-03-30T14:56:30Z</time></trkpt><trkpt lat="41.99133781615335" lon="-0.5657398948455729"><ele>387.0</ele><time>2026-03-30T14:56:31Z</time></trkpt><trkpt lat="41.99149092107882" lon="-0.566012096170932"><ele>387.0</ele><time>2026-03-30T14:56:32Z</time></trkpt><trkpt lat="41.991643526901214" lon="-0.5662830276315005"><ele>387.0</ele><time>2026-03-30T14:56:33Z</time></trkpt><trkpt lat="41.99179122795716" lon="-0.5665446404941752"><ele>387.0</ele><time>2026-03-30T14:56:34Z</time></trkpt><trkpt lat="41.99193749816022" lon="-0.5668027417510533"><ele>387.0</ele><time>2026-03-30T14:56:35Z</time></trkpt><trkpt lat="41.99208863648776" lon="-0.567067370645209"><ele>387.0</ele><time>2026-03-30T14:56:36Z</time></trkpt><trkpt lat="41.992235693308224" lon="-0.5673278819781935"><ele>387.0</ele><time>2026-03-30T14:56:37Z</time></trkpt><trkpt lat="41.99236994536357" lon="-0.5675597014573633"><ele>387.0</ele><time>2026-03-30T14:56:38Z</time></trkpt><trkpt lat="41.99249516486149" lon="-0.567786435004729"><ele>387.0</ele><time>2026-03-30T14:56:39Z</time></trkpt><trkpt lat="41.99262038454835" lon="-0.568011650689936"><ele>387.0</ele><time>2026-03-30T14:56:40Z</time></trkpt><trkpt lat="41.992748433666364" lon="-0.5682364271510777"><ele>387.0</ele><time>2026-03-30T14:56:41Z</time></trkpt><trkpt lat="41.99287907032373" lon="-0.5684588383546494"><ele>387.0</ele><time>2026-03-30T14:56:42Z</time></trkpt><trkpt lat="41.9930083080315" lon="-0.5686899537518891"><ele>387.0</ele><time>2026-03-30T14:56:43Z</time></trkpt><trkpt lat="41.99314101781509" lon="-0.5689275980059755"><ele>387.33333333333337</ele><time>2026-03-30T14:56:44Z</time></trkpt><trkpt lat="41.993275391326435" lon="-0.569163162611395"><ele>387.6666666666667</ele><time>2026-03-30T14:56:45Z</time></trkpt><trkpt lat="41.9934080038236" lon="-0.5693931986999721"><ele>388.0</ele><time>2026-03-30T14:56:46Z</time></trkpt><trkpt lat="41.99353654857086" lon="-0.569622684203367"><ele>388.0</ele><time>2026-03-30T14:56:47Z</time></trkpt><trkpt lat="41.993657222892814" lon="-0.5698362537065119"><ele>388.0</ele><time>2026-03-30T14:56:48Z</time></trkpt><trkpt lat="41.99377828428137" lon="-0.5700534893383643"><ele>388.0</ele><time>2026-03-30T14:56:49Z</time></trkpt><trkpt lat="41.99390246488832" lon="-0.5702833353442144"><ele>388.0</ele><time>2026-03-30T14:56:50Z</time></trkpt><trkpt lat="41.99402660850639" lon="-0.5704947616068166"><ele>388.0</ele><time>2026-03-30T14:56:51Z</time></trkpt><trkpt lat="41.99414732853057" lon="-0.5707039460204033"><ele>388.0</ele><time>2026-03-30T14:56:52Z</time></trkpt><trkpt lat="41.99426605352545" lon="-0.5709069503919463"><ele>387.33333333333337</ele><time>2026-03-30T14:56:53Z</time></trkpt><trkpt lat="41.99438635961194" lon="-0.5711135675354908"><ele>386.66666666666663</ele><time>2026-03-30T14:56:54Z</time></trkpt><trkpt lat="41.994498057164684" lon="-0.5713193274300619"><ele>386.0</ele><time>2026-03-30T14:56:55Z</time></trkpt><trkpt lat="41.99461123948546" lon="-0.5715197129092833"><ele>386.0</ele><time>2026-03-30T14:56:56Z</time></trkpt><trkpt lat="41.994708192689515" lon="-0.5716923094685519"><ele>386.0</ele><time>2026-03-30T14:56:57Z</time></trkpt><trkpt lat="41.99478829637504" lon="-0.5718304194485426"><ele>386.0</ele><time>2026-03-30T14:56:58Z</time></trkpt><trkpt lat="41.99487586054493" lon="-0.5719927327909305"><ele>386.0</ele><time>2026-03-30T14:56:59Z</time></trkpt><trkpt lat="41.994977807937175" lon="-0.5722012359599555"><ele>385.0</ele><time>2026-03-30T14:57:00Z</time></trkpt><trkpt lat="41.99509536575188" lon="-0.5724581529812564"><ele>384.0</ele><time>2026-03-30T14:57:01Z</time></trkpt><trkpt lat="41.99521425281736" lon="-0.572727395475243"><ele>384.0</ele><time>2026-03-30T14:57:02Z</time></trkpt><trkpt lat="41.99533073350425" lon="-0.5729955887332224"><ele>384.0</ele><time>2026-03-30T14:57:03Z</time></trkpt><trkpt lat="41.995440141943114" lon="-0.5732566606532481"><ele>384.0</ele><time>2026-03-30T14:57:04Z</time></trkpt><trkpt lat="41.995547680932276" lon="-0.5735190775958376"><ele>384.0</ele><time>2026-03-30T14:57:05Z</time></trkpt><trkpt lat="41.99563956137614" lon="-0.573786649625551"><ele>384.0</ele><time>2026-03-30T14:57:06Z</time></trkpt><trkpt lat="41.99572214042563" lon="-0.5740554243222368"><ele>384.66666666666663</ele><time>2026-03-30T14:57:07Z</time></trkpt><trkpt lat="41.9958013577308" lon="-0.5743205286706692"><ele>385.3333333333333</ele><time>2026-03-30T14:57:08Z</time></trkpt><trkpt lat="41.99587375999555" lon="-0.5745789724051131"><ele>386.0</ele><time>2026-03-30T14:57:09Z</time></trkpt><trkpt lat="41.995944663637566" lon="-0.5748325079432796"><ele>386.0</ele><time>2026-03-30T14:57:10Z</time></trkpt><trkpt lat="41.99600912502551" lon="-0.5750835585775681"><ele>386.0</ele><time>2026-03-30T14:57:11Z</time></trkpt><trkpt lat="41.99606736619988" lon="-0.5753298932610272"><ele>386.0</ele><time>2026-03-30T14:57:12Z</time></trkpt><trkpt lat="41.99611986510937" lon="-0.5755804503252199"><ele>385.66666666666663</ele><time>2026-03-30T14:57:13Z</time></trkpt><trkpt lat="41.996170338000844" lon="-0.575832947327805"><ele>385.33333333333337</ele><time>2026-03-30T14:57:14Z</time></trkpt><trkpt lat="41.996215180686185" lon="-0.5760795508376383"><ele>385.0</ele><time>2026-03-30T14:57:15Z</time></trkpt><trkpt lat="41.996255619272056" lon="-0.5763409941700725"><ele>385.6666666666667</ele><time>2026-03-30T14:57:16Z</time></trkpt><trkpt lat="41.99629661942019" lon="-0.5766175849036111"><ele>386.33333333333337</ele><time>2026-03-30T14:57:17Z</time></trkpt><trkpt lat="41.99633600467715" lon="-0.5769288900487346"><ele>387.0</ele><time>2026-03-30T14:57:18Z</time></trkpt><trkpt lat="41.9963705528568" lon="-0.5772438658534775"><ele>387.0</ele><time>2026-03-30T14:57:19Z</time></trkpt><trkpt lat="41.996399764005005" lon="-0.5775583709315075"><ele>387.0</ele><time>2026-03-30T14:57:20Z</time></trkpt><trkpt lat="41.996424582072606" lon="-0.577873127179354"><ele>388.0</ele><time>2026-03-30T14:57:21Z</time></trkpt><trkpt lat="41.996440244320866" lon="-0.5781882836776514"><ele>389.0</ele><time>2026-03-30T14:57:22Z</time></trkpt><trkpt lat="41.996451159959044" lon="-0.5784954407065568"><ele>388.66666666666663</ele><time>2026-03-30T14:57:23Z</time></trkpt><trkpt lat="41.99646100458103" lon="-0.5787978197146999"><ele>388.33333333333337</ele><time>2026-03-30T14:57:24Z</time></trkpt><trkpt lat="41.996468097274395" lon="-0.5790974335309321"><ele>388.0</ele><time>2026-03-30T14:57:25Z</time></trkpt><trkpt lat="41.99646480394203" lon="-0.5793999244043814"><ele>387.33333333333337</ele><time>2026-03-30T14:57:26Z</time></trkpt><trkpt lat="41.9964627565858" lon="-0.5796964342319406"><ele>386.66666666666663</ele><time>2026-03-30T14:57:27Z</time></trkpt><trkpt lat="41.99646735459609" lon="-0.5799896725681989"><ele>386.0</ele><time>2026-03-30T14:57:28Z</time></trkpt><trkpt lat="41.996464741187246" lon="-0.5803006835279789"><ele>386.0</ele><time>2026-03-30T14:57:29Z</time></trkpt><trkpt lat="41.99646133047113" lon="-0.5806018758741169"><ele>386.0</ele><time>2026-03-30T14:57:30Z</time></trkpt><trkpt lat="41.996463647714165" lon="-0.5808886175886802"><ele>386.0</ele><time>2026-03-30T14:57:31Z</time></trkpt><trkpt lat="41.99646834488432" lon="-0.5811743578740554"><ele>386.0</ele><time>2026-03-30T14:57:32Z</time></trkpt><trkpt lat="41.99646890978467" lon="-0.5814598754213741"><ele>386.0</ele><time>2026-03-30T14:57:33Z</time></trkpt><trkpt lat="41.99646618304973" lon="-0.5817448405799436"><ele>386.0</ele><time>2026-03-30T14:57:34Z</time></trkpt><trkpt lat="41.99645870606575" lon="-0.5820256409934722"><ele>386.0</ele><time>2026-03-30T14:57:35Z</time></trkpt><trkpt lat="41.99646176691757" lon="-0.5823062181369347"><ele>386.0</ele><time>2026-03-30T14:57:36Z</time></trkpt><trkpt lat="41.99646390768879" lon="-0.5825892764716966"><ele>386.0</ele><time>2026-03-30T14:57:37Z</time></trkpt><trkpt lat="41.996464756590754" lon="-0.5828687514472375"><ele>386.0</ele><time>2026-03-30T14:57:38Z</time></trkpt><trkpt lat="41.99646759706426" lon="-0.5831749359607566"><ele>386.0</ele><time>2026-03-30T14:57:39Z</time></trkpt><trkpt lat="41.99646861553836" lon="-0.5834849344892947"><ele>386.0</ele><time>2026-03-30T14:57:40Z</time></trkpt><trkpt lat="41.996471816076486" lon="-0.5837877116116967"><ele>386.0</ele><time>2026-03-30T14:57:41Z</time></trkpt><trkpt lat="41.9964727518212" lon="-0.5840907576263468"><ele>386.0</ele><time>2026-03-30T14:57:42Z</time></trkpt><trkpt lat="41.996468715175276" lon="-0.5843833712497246"><ele>386.0</ele><time>2026-03-30T14:57:43Z</time></trkpt><trkpt lat="41.99646701274373" lon="-0.5846710040112808"><ele>386.0</ele><time>2026-03-30T14:57:44Z</time></trkpt><trkpt lat="41.996467192143" lon="-0.584954644940508"><ele>386.3333333333333</ele><time>2026-03-30T14:57:45Z</time></trkpt><trkpt lat="41.9964697345224" lon="-0.5852320232731117"><ele>386.66666666666663</ele><time>2026-03-30T14:57:46Z</time></trkpt><trkpt lat="41.99646790577169" lon="-0.5854983449081005"><ele>387.0</ele><time>2026-03-30T14:57:47Z</time></trkpt><trkpt lat="41.99646034828482" lon="-0.5857728300399095"><ele>387.0</ele><time>2026-03-30T14:57:48Z</time></trkpt><trkpt lat="41.99645551683632" lon="-0.5860459218080185"><ele>387.0</ele><time>2026-03-30T14:57:49Z</time></trkpt><trkpt lat="41.99645482329829" lon="-0.5863260526547455"><ele>387.0</ele><time>2026-03-30T14:57:50Z</time></trkpt><trkpt lat="41.996453520277775" lon="-0.5866100592769734"><ele>386.0</ele><time>2026-03-30T14:57:51Z</time></trkpt><trkpt lat="41.99645228436382" lon="-0.5869051876531883"><ele>385.0</ele><time>2026-03-30T14:57:52Z</time></trkpt><trkpt lat="41.996448478228956" lon="-0.5872070648615966"><ele>384.0</ele><time>2026-03-30T14:57:53Z</time></trkpt><trkpt lat="41.99644846911782" lon="-0.5875178207868513"><ele>383.6666666666667</ele><time>2026-03-30T14:57:54Z</time></trkpt><trkpt lat="41.99644855569237" lon="-0.5878033112037119"><ele>383.33333333333337</ele><time>2026-03-30T14:57:55Z</time></trkpt><trkpt lat="41.99645052081664" lon="-0.588096337076421"><ele>383.0</ele><time>2026-03-30T14:57:56Z</time></trkpt><trkpt lat="41.996446072936955" lon="-0.5883776181252676"><ele>382.6666666666667</ele><time>2026-03-30T14:57:57Z</time></trkpt><trkpt lat="41.996442144852175" lon="-0.5886560472828922"><ele>382.3333333333333</ele><time>2026-03-30T14:57:58Z</time></trkpt><trkpt lat="41.996440190961856" lon="-0.5889309991674356"><ele>382.0</ele><time>2026-03-30T14:57:59Z</time></trkpt><trkpt lat="41.996440650748596" lon="-0.5892088509714674"><ele>381.66666666666663</ele><time>2026-03-30T14:58:00Z</time></trkpt><trkpt lat="41.99644363236484" lon="-0.5894889355647054"><ele>381.3333333333333</ele><time>2026-03-30T14:58:01Z</time></trkpt><trkpt lat="41.99644204910323" lon="-0.5897614127067027"><ele>381.0</ele><time>2026-03-30T14:58:02Z</time></trkpt><trkpt lat="41.99643940577464" lon="-0.5900421343839313"><ele>380.6666666666667</ele><time>2026-03-30T14:58:03Z</time></trkpt><trkpt lat="41.99643818563462" lon="-0.590322192980447"><ele>380.33333333333337</ele><time>2026-03-30T14:58:04Z</time></trkpt><trkpt lat="41.99643788955588" lon="-0.5906037956033843"><ele>380.0</ele><time>2026-03-30T14:58:05Z</time></trkpt><trkpt lat="41.99643543684703" lon="-0.5909030687557506"><ele>380.0</ele><time>2026-03-30T14:58:06Z</time></trkpt><trkpt lat="41.99643764350856" lon="-0.5912033826135631"><ele>380.0</ele><time>2026-03-30T14:58:07Z</time></trkpt><trkpt lat="41.9964381862288" lon="-0.5914943935036358"><ele>380.0</ele><time>2026-03-30T14:58:08Z</time></trkpt><trkpt lat="41.99643635673074" lon="-0.5918036401363597"><ele>380.0</ele><time>2026-03-30T14:58:09Z</time></trkpt><trkpt lat="41.99643650886613" lon="-0.5921164394953458"><ele>380.0</ele><time>2026-03-30T14:58:10Z</time></trkpt><trkpt lat="41.99643723891979" lon="-0.5924361567839382"><ele>380.0</ele><time>2026-03-30T14:58:11Z</time></trkpt><trkpt lat="41.99643735388538" lon="-0.5927546454607392"><ele>380.0</ele><time>2026-03-30T14:58:12Z</time></trkpt><trkpt lat="41.99643822220887" lon="-0.5930711058088737"><ele>380.0</ele><time>2026-03-30T14:58:13Z</time></trkpt><trkpt lat="41.99643961025823" lon="-0.5933803612651923"><ele>380.0</ele><time>2026-03-30T14:58:14Z</time></trkpt><trkpt lat="41.996439957143544" lon="-0.5936866506587319"><ele>379.5</ele><time>2026-03-30T14:58:15Z</time></trkpt><trkpt lat="41.996439154414105" lon="-0.59399764237731"><ele>379.0</ele><time>2026-03-30T14:58:16Z</time></trkpt><trkpt lat="41.99643957408238" lon="-0.5942979077294853"><ele>379.66666666666663</ele><time>2026-03-30T14:58:17Z</time></trkpt><trkpt lat="41.996438166907595" lon="-0.5945988150251093"><ele>380.3333333333333</ele><time>2026-03-30T14:58:18Z</time></trkpt><trkpt lat="41.996435502516476" lon="-0.5948888826023565"><ele>381.0</ele><time>2026-03-30T14:58:19Z</time></trkpt><trkpt lat="41.996433248921846" lon="-0.5951790784376488"><ele>381.0</ele><time>2026-03-30T14:58:20Z</time></trkpt><trkpt lat="41.99643252120582" lon="-0.5954825342231321"><ele>381.0</ele><time>2026-03-30T14:58:21Z</time></trkpt><trkpt lat="41.99643365641956" lon="-0.5957800300622317"><ele>381.0</ele><time>2026-03-30T14:58:22Z</time></trkpt><trkpt lat="41.99643607133847" lon="-0.5960749680871763"><ele>380.0</ele><time>2026-03-30T14:58:23Z</time></trkpt><trkpt lat="41.996439971769085" lon="-0.5963878252999738"><ele>379.0</ele><time>2026-03-30T14:58:24Z</time></trkpt><trkpt lat="41.99644030469624" lon="-0.5966917584585456"><ele>379.0</ele><time>2026-03-30T14:58:25Z</time></trkpt><trkpt lat="41.996439565333546" lon="-0.597001752195076"><ele>379.0</ele><time>2026-03-30T14:58:26Z</time></trkpt><trkpt lat="41.996441933957215" lon="-0.5973044070132413"><ele>378.66666666666663</ele><time>2026-03-30T14:58:27Z</time></trkpt><trkpt lat="41.99644218846913" lon="-0.5976062124086421"><ele>378.3333333333333</ele><time>2026-03-30T14:58:28Z</time></trkpt><trkpt lat="41.99644128328441" lon="-0.5979046324642928"><ele>378.0</ele><time>2026-03-30T14:58:29Z</time></trkpt><trkpt lat="41.99644234291809" lon="-0.5981976579025453"><ele>378.0</ele><time>2026-03-30T14:58:30Z</time></trkpt><trkpt lat="41.99644038227635" lon="-0.5984985683714826"><ele>378.0</ele><time>2026-03-30T14:58:31Z</time></trkpt><trkpt lat="41.99644040375788" lon="-0.5987964825570761"><ele>378.0</ele><time>2026-03-30T14:58:32Z</time></trkpt><trkpt lat="41.99643733326226" lon="-0.5990916970183683"><ele>378.0</ele><time>2026-03-30T14:58:33Z</time></trkpt><trkpt lat="41.9964342189693" lon="-0.5993970598065563"><ele>378.0</ele><time>2026-03-30T14:58:34Z</time></trkpt><trkpt lat="41.99643545104188" lon="-0.5997003267961066"><ele>378.0</ele><time>2026-03-30T14:58:35Z</time></trkpt><trkpt lat="41.99643863187201" lon="-0.5999984671677506"><ele>378.0</ele><time>2026-03-30T14:58:36Z</time></trkpt><trkpt lat="41.99644437551509" lon="-0.6002940290701125"><ele>378.0</ele><time>2026-03-30T14:58:37Z</time></trkpt><trkpt lat="41.996449224115416" lon="-0.6005963482759084"><ele>378.0</ele><time>2026-03-30T14:58:38Z</time></trkpt><trkpt lat="41.996446552126386" lon="-0.6008911484352151"><ele>378.0</ele><time>2026-03-30T14:58:39Z</time></trkpt><trkpt lat="41.99644252389576" lon="-0.6011845766864963"><ele>378.0</ele><time>2026-03-30T14:58:40Z</time></trkpt><trkpt lat="41.996440589497105" lon="-0.6014753599782036"><ele>378.0</ele><time>2026-03-30T14:58:41Z</time></trkpt><trkpt lat="41.99643687251115" lon="-0.6017650474042648"><ele>378.0</ele><time>2026-03-30T14:58:42Z</time></trkpt><trkpt lat="41.996432250167885" lon="-0.6020551069159858"><ele>378.0</ele><time>2026-03-30T14:58:43Z</time></trkpt><trkpt lat="41.99642805399225" lon="-0.6023497034370171"><ele>378.3333333333333</ele><time>2026-03-30T14:58:44Z</time></trkpt><trkpt lat="41.99642581371231" lon="-0.6026471388062864"><ele>378.66666666666663</ele><time>2026-03-30T14:58:45Z</time></trkpt><trkpt lat="41.996428161503424" lon="-0.6029491142039684"><ele>379.0</ele><time>2026-03-30T14:58:46Z</time></trkpt><trkpt lat="41.99642669457002" lon="-0.6032508957759357"><ele>379.5</ele><time>2026-03-30T14:58:47Z</time></trkpt><trkpt lat="41.996421985292145" lon="-0.6035609291101859"><ele>380.0</ele><time>2026-03-30T14:58:48Z</time></trkpt><trkpt lat="41.9964243352964" lon="-0.6038854491619519"><ele>380.0</ele><time>2026-03-30T14:58:49Z</time></trkpt><trkpt lat="41.99642865006206" lon="-0.6041922408768716"><ele>380.0</ele><time>2026-03-30T14:58:50Z</time></trkpt><trkpt lat="41.9964358206137" lon="-0.6045050547455108"><ele>379.0</ele><time>2026-03-30T14:58:51Z</time></trkpt><trkpt lat="41.99644723017825" lon="-0.6048086067714933"><ele>378.0</ele><time>2026-03-30T14:58:52Z</time></trkpt><trkpt lat="41.99645948269096" lon="-0.6051126734943783"><ele>378.6666666666667</ele><time>2026-03-30T14:58:53Z</time></trkpt><trkpt lat="41.99647166135491" lon="-0.6054090793535555"><ele>379.33333333333337</ele><time>2026-03-30T14:58:54Z</time></trkpt><trkpt lat="41.99648234113071" lon="-0.6057047210726285"><ele>380.0</ele><time>2026-03-30T14:58:55Z</time></trkpt><trkpt lat="41.99649504010626" lon="-0.6060018978882467"><ele>380.33333333333337</ele><time>2026-03-30T14:58:56Z</time></trkpt><trkpt lat="41.9965026517978" lon="-0.6062962469741714"><ele>380.6666666666667</ele><time>2026-03-30T14:58:57Z</time></trkpt><trkpt lat="41.996499513644515" lon="-0.6065990993773505"><ele>381.0</ele><time>2026-03-30T14:58:58Z</time></trkpt><trkpt lat="41.996491030108544" lon="-0.6068986282241237"><ele>381.0</ele><time>2026-03-30T14:58:59Z</time></trkpt><trkpt lat="41.99648063228799" lon="-0.6071976307952852"><ele>381.0</ele><time>2026-03-30T14:59:00Z</time></trkpt><trkpt lat="41.99647593231074" lon="-0.6074894558367652"><ele>381.0</ele><time>2026-03-30T14:59:01Z</time></trkpt><trkpt lat="41.996472988771565" lon="-0.6077810590396534"><ele>380.3333333333333</ele><time>2026-03-30T14:59:02Z</time></trkpt><trkpt lat="41.99646628249228" lon="-0.6080725252689059"><ele>379.66666666666663</ele><time>2026-03-30T14:59:03Z</time></trkpt><trkpt lat="41.99645459785545" lon="-0.608370653765825"><ele>379.0</ele><time>2026-03-30T14:59:04Z</time></trkpt><trkpt lat="41.9964507793293" lon="-0.6086751590313798"><ele>378.0</ele><time>2026-03-30T14:59:05Z</time></trkpt><trkpt lat="41.99644824056731" lon="-0.6089856834393447"><ele>377.0</ele><time>2026-03-30T14:59:06Z</time></trkpt><trkpt lat="41.99644081417047" lon="-0.6092977238527837"><ele>377.0</ele><time>2026-03-30T14:59:07Z</time></trkpt><trkpt lat="41.99643678511525" lon="-0.6096071823171755"><ele>377.0</ele><time>2026-03-30T14:59:08Z</time></trkpt><trkpt lat="41.99643123446406" lon="-0.6099083495631774"><ele>377.0</ele><time>2026-03-30T14:59:09Z</time></trkpt><trkpt lat="41.9964279988049" lon="-0.6101965145169432"><ele>377.0</ele><time>2026-03-30T14:59:10Z</time></trkpt><trkpt lat="41.99642868834219" lon="-0.6104823733163862"><ele>377.0</ele><time>2026-03-30T14:59:11Z</time></trkpt><trkpt lat="41.996437513582144" lon="-0.610773689197341"><ele>376.6666666666667</ele><time>2026-03-30T14:59:12Z</time></trkpt><trkpt lat="41.99648615694054" lon="-0.6110478923021025"><ele>376.3333333333333</ele><time>2026-03-30T14:59:13Z</time></trkpt><trkpt lat="41.99657660844413" lon="-0.6113005693517813"><ele>376.0</ele><time>2026-03-30T14:59:14Z</time></trkpt><trkpt lat="41.99671038494702" lon="-0.6115172915524735"><ele>376.0</ele><time>2026-03-30T14:59:15Z</time></trkpt><trkpt lat="41.99685761978575" lon="-0.6117228675958845"><ele>376.0</ele><time>2026-03-30T14:59:16Z</time></trkpt><trkpt lat="41.996988195902354" lon="-0.6119411777645866"><ele>376.0</ele><time>2026-03-30T14:59:17Z</time></trkpt><trkpt lat="41.99711168100403" lon="-0.6121516430332459"><ele>376.0</ele><time>2026-03-30T14:59:18Z</time></trkpt><trkpt lat="41.99722369545788" lon="-0.6123549573892012"><ele>376.0</ele><time>2026-03-30T14:59:19Z</time></trkpt><trkpt lat="41.99730967201147" lon="-0.6125493917068808"><ele>376.0</ele><time>2026-03-30T14:59:20Z</time></trkpt><trkpt lat="41.99736848737003" lon="-0.6127650246452396"><ele>376.0</ele><time>2026-03-30T14:59:21Z</time></trkpt><trkpt lat="41.99736980413499" lon="-0.6130045439729359"><ele>376.0</ele><time>2026-03-30T14:59:22Z</time></trkpt><trkpt lat="41.99731566622593" lon="-0.6132418795359735"><ele>376.0</ele><time>2026-03-30T14:59:23Z</time></trkpt><trkpt lat="41.997248722149585" lon="-0.6134574121654797"><ele>376.66666666666663</ele><time>2026-03-30T14:59:24Z</time></trkpt><trkpt lat="41.997213406875304" lon="-0.6136759792487696"><ele>377.3333333333333</ele><time>2026-03-30T14:59:25Z</time></trkpt><trkpt lat="41.99724145821561" lon="-0.613889561054055"><ele>378.0</ele><time>2026-03-30T14:59:26Z</time></trkpt><trkpt lat="41.9973077601154" lon="-0.6140839748291479"><ele>378.0</ele><time>2026-03-30T14:59:27Z</time></trkpt><trkpt lat="41.997381740800606" lon="-0.614284700743364"><ele>378.0</ele><time>2026-03-30T14:59:28Z</time></trkpt><trkpt lat="41.99748485501914" lon="-0.6144988053270654"><ele>378.0</ele><time>2026-03-30T14:59:29Z</time></trkpt><trkpt lat="41.99758609443648" lon="-0.6147365128160069"><ele>377.6666666666667</ele><time>2026-03-30T14:59:30Z</time></trkpt><trkpt lat="41.99769075307029" lon="-0.6149986879533731"><ele>377.33333333333337</ele><time>2026-03-30T14:59:31Z</time></trkpt><trkpt lat="41.99778359579304" lon="-0.615238179770102"><ele>377.0</ele><time>2026-03-30T14:59:32Z</time></trkpt><trkpt lat="41.99788300902814" lon="-0.615474501883657"><ele>377.0</ele><time>2026-03-30T14:59:33Z</time></trkpt><trkpt lat="41.997976569887165" lon="-0.6157043933121104"><ele>377.0</ele><time>2026-03-30T14:59:34Z</time></trkpt><trkpt lat="41.99806673959876" lon="-0.6159431805607194"><ele>377.0</ele><time>2026-03-30T14:59:35Z</time></trkpt><trkpt lat="41.99816487393675" lon="-0.6161786892942491"><ele>376.33333333333337</ele><time>2026-03-30T14:59:36Z</time></trkpt><trkpt lat="41.99826701215376" lon="-0.6164087674710972"><ele>375.6666666666667</ele><time>2026-03-30T14:59:37Z</time></trkpt><trkpt lat="41.99836477433817" lon="-0.6166416843333844"><ele>375.0</ele><time>2026-03-30T14:59:38Z</time></trkpt><trkpt lat="41.99845544158965" lon="-0.6168724242158888"><ele>376.0</ele><time>2026-03-30T14:59:39Z</time></trkpt><trkpt lat="41.99854749117259" lon="-0.6171050592917956"><ele>377.0</ele><time>2026-03-30T14:59:40Z</time></trkpt><trkpt lat="41.998645098848506" lon="-0.617339142883309"><ele>378.0</ele><time>2026-03-30T14:59:41Z</time></trkpt><trkpt lat="41.998738968816475" lon="-0.6175697436917856"><ele>378.0</ele><time>2026-03-30T14:59:42Z</time></trkpt><trkpt lat="41.99882720465036" lon="-0.6178083317909859"><ele>378.0</ele><time>2026-03-30T14:59:43Z</time></trkpt><trkpt lat="41.99888957988758" lon="-0.6180575922191941"><ele>378.0</ele><time>2026-03-30T14:59:44Z</time></trkpt><trkpt lat="41.998896918528196" lon="-0.6183316668546915"><ele>377.0</ele><time>2026-03-30T14:59:45Z</time></trkpt><trkpt lat="41.99887278417419" lon="-0.6186245897587215"><ele>376.0</ele><time>2026-03-30T14:59:46Z</time></trkpt><trkpt lat="41.99881286999538" lon="-0.6189168517609254"><ele>375.0</ele><time>2026-03-30T14:59:47Z</time></trkpt><trkpt lat="41.998745288898235" lon="-0.619206590402201"><ele>376.0</ele><time>2026-03-30T14:59:48Z</time></trkpt><trkpt lat="41.99868262993964" lon="-0.6194965331886473"><ele>377.0</ele><time>2026-03-30T14:59:49Z</time></trkpt><trkpt lat="41.99862220545899" lon="-0.6197988608420752"><ele>377.0</ele><time>2026-03-30T14:59:50Z</time></trkpt><trkpt lat="41.99856748816807" lon="-0.6201023104062329"><ele>377.0</ele><time>2026-03-30T14:59:51Z</time></trkpt><trkpt lat="41.99851260327118" lon="-0.6204034441901626"><ele>377.0</ele><time>2026-03-30T14:59:52Z</time></trkpt><trkpt lat="41.9984594948642" lon="-0.6206962019352101"><ele>377.0</ele><time>2026-03-30T14:59:53Z</time></trkpt><trkpt lat="41.99840883091905" lon="-0.6209713057594921"><ele>377.0</ele><time>2026-03-30T14:59:54Z</time></trkpt><trkpt lat="41.99835468920597" lon="-0.6212381742430408"><ele>376.0</ele><time>2026-03-30T14:59:55Z</time></trkpt><trkpt lat="41.99830198990224" lon="-0.6215052396355261"><ele>375.0</ele><time>2026-03-30T14:59:56Z</time></trkpt><trkpt lat="41.99824899491772" lon="-0.6217793907653413"><ele>374.0</ele><time>2026-03-30T14:59:57Z</time></trkpt><trkpt lat="41.99819830137166" lon="-0.6220568856330098"><ele>374.0</ele><time>2026-03-30T14:59:58Z</time></trkpt><trkpt lat="41.99814839330131" lon="-0.6223529173034101"><ele>374.0</ele><time>2026-03-30T14:59:59Z</time></trkpt><trkpt lat="41.998096794564646" lon="-0.6226477560493101"><ele>373.5</ele><time>2026-03-30T15:00:00Z</time></trkpt><trkpt lat="41.99803757543931" lon="-0.6229411131193627"><ele>373.0</ele><time>2026-03-30T15:00:01Z</time></trkpt><trkpt lat="41.99797571757172" lon="-0.6232391935081262"><ele>373.0</ele><time>2026-03-30T15:00:02Z</time></trkpt><trkpt lat="41.997916721490334" lon="-0.6235365948416121"><ele>373.0</ele><time>2026-03-30T15:00:03Z</time></trkpt><trkpt lat="41.99785693575173" lon="-0.6238363566307746"><ele>373.0</ele><time>2026-03-30T15:00:04Z</time></trkpt><trkpt lat="41.997801619157826" lon="-0.6241304463257236"><ele>373.0</ele><time>2026-03-30T15:00:05Z</time></trkpt><trkpt lat="41.99774703286081" lon="-0.624427149814786"><ele>372.3333333333333</ele><time>2026-03-30T15:00:06Z</time></trkpt><trkpt lat="41.9976919613482" lon="-0.6247171369006523"><ele>371.6666666666667</ele><time>2026-03-30T15:00:07Z</time></trkpt><trkpt lat="41.997640289415834" lon="-0.6250085754044693"><ele>371.0</ele><time>2026-03-30T15:00:08Z</time></trkpt><trkpt lat="41.99759050175103" lon="-0.625305668130987"><ele>369.5</ele><time>2026-03-30T15:00:09Z</time></trkpt><trkpt lat="41.9975324750686" lon="-0.62559722301774"><ele>368.0</ele><time>2026-03-30T15:00:10Z</time></trkpt><trkpt lat="41.997469277311176" lon="-0.6258939590605452"><ele>367.5</ele><time>2026-03-30T15:00:11Z</time></trkpt><trkpt lat="41.997410021863374" lon="-0.6261902107668206"><ele>367.0</ele><time>2026-03-30T15:00:12Z</time></trkpt><trkpt lat="41.99736037024585" lon="-0.6264855567439918"><ele>367.0</ele><time>2026-03-30T15:00:13Z</time></trkpt><trkpt lat="41.99730975243648" lon="-0.6267793848940103"><ele>367.0</ele><time>2026-03-30T15:00:14Z</time></trkpt><trkpt lat="41.997251076588356" lon="-0.6270711786429752"><ele>367.0</ele><time>2026-03-30T15:00:15Z</time></trkpt><trkpt lat="41.99719059335556" lon="-0.6273609690234094"><ele>367.0</ele><time>2026-03-30T15:00:16Z</time></trkpt><trkpt lat="41.997134054970125" lon="-0.6276517020365726"><ele>367.0</ele><time>2026-03-30T15:00:17Z</time></trkpt><trkpt lat="41.99710468373715" lon="-0.6279536070097483"><ele>367.0</ele><time>2026-03-30T15:00:18Z</time></trkpt><trkpt lat="41.99708712541691" lon="-0.62826479603663"><ele>367.0</ele><time>2026-03-30T15:00:19Z</time></trkpt><trkpt lat="41.99706304088698" lon="-0.6285828328644311"><ele>366.5</ele><time>2026-03-30T15:00:20Z</time></trkpt><trkpt lat="41.99704162311772" lon="-0.628891662736786"><ele>366.0</ele><time>2026-03-30T15:00:21Z</time></trkpt><trkpt lat="41.997017606357254" lon="-0.6292018497539542"><ele>365.0</ele><time>2026-03-30T15:00:22Z</time></trkpt><trkpt lat="41.996986930214035" lon="-0.6295124143944187"><ele>364.0</ele><time>2026-03-30T15:00:23Z</time></trkpt><trkpt lat="41.99696037059004" lon="-0.6298151896411409"><ele>364.0</ele><time>2026-03-30T15:00:24Z</time></trkpt><trkpt lat="41.99694009233417" lon="-0.6301201720192879"><ele>364.0</ele><time>2026-03-30T15:00:25Z</time></trkpt><trkpt lat="41.99691850716404" lon="-0.6304244349849341"><ele>364.0</ele><time>2026-03-30T15:00:26Z</time></trkpt><trkpt lat="41.99689374008911" lon="-0.6307304453754394"><ele>364.0</ele><time>2026-03-30T15:00:27Z</time></trkpt><trkpt lat="41.996871351981234" lon="-0.6310387535557356"><ele>363.5</ele><time>2026-03-30T15:00:28Z</time></trkpt><trkpt lat="41.99685150346514" lon="-0.631342419069938"><ele>363.0</ele><time>2026-03-30T15:00:29Z</time></trkpt><trkpt lat="41.99683666794929" lon="-0.6316536115137026"><ele>363.0</ele><time>2026-03-30T15:00:30Z</time></trkpt><trkpt lat="41.996815231754056" lon="-0.6319596975293199"><ele>363.0</ele><time>2026-03-30T15:00:31Z</time></trkpt><trkpt lat="41.99679444344763" lon="-0.6322713121010612"><ele>363.0</ele><time>2026-03-30T15:00:32Z</time></trkpt><trkpt lat="41.99678003689468" lon="-0.6325793342262702"><ele>363.0</ele><time>2026-03-30T15:00:33Z</time></trkpt><trkpt lat="41.99676062679069" lon="-0.6328797793439718"><ele>362.6666666666667</ele><time>2026-03-30T15:00:34Z</time></trkpt><trkpt lat="41.99673735789895" lon="-0.6331667801645218"><ele>362.33333333333337</ele><time>2026-03-30T15:00:35Z</time></trkpt><trkpt lat="41.996721064660065" lon="-0.6334604065039728"><ele>362.0</ele><time>2026-03-30T15:00:36Z</time></trkpt><trkpt lat="41.9967033796554" lon="-0.6337377458718612"><ele>361.6666666666667</ele><time>2026-03-30T15:00:37Z</time></trkpt><trkpt lat="41.99668683936194" lon="-0.6340002965163861"><ele>361.3333333333333</ele><time>2026-03-30T15:00:38Z</time></trkpt><trkpt lat="41.99666863079008" lon="-0.6342634800873682"><ele>361.0</ele><time>2026-03-30T15:00:39Z</time></trkpt><trkpt lat="41.99664964119666" lon="-0.6345382237909861"><ele>361.3333333333333</ele><time>2026-03-30T15:00:40Z</time></trkpt><trkpt lat="41.99662887901985" lon="-0.6348207619136367"><ele>361.6666666666667</ele><time>2026-03-30T15:00:41Z</time></trkpt><trkpt lat="41.996609113863684" lon="-0.6350981226977385"><ele>362.0</ele><time>2026-03-30T15:00:42Z</time></trkpt><trkpt lat="41.99659428927172" lon="-0.6353779142101116"><ele>362.0</ele><time>2026-03-30T15:00:43Z</time></trkpt><trkpt lat="41.99657804044286" lon="-0.6356686901799427"><ele>362.0</ele><time>2026-03-30T15:00:44Z</time></trkpt><trkpt lat="41.996563762081834" lon="-0.635973009878971"><ele>362.0</ele><time>2026-03-30T15:00:45Z</time></trkpt><trkpt lat="41.996559142232066" lon="-0.636291932477604"><ele>361.5</ele><time>2026-03-30T15:00:46Z</time></trkpt><trkpt lat="41.99657033341722" lon="-0.6366312654274123"><ele>361.0</ele><time>2026-03-30T15:00:47Z</time></trkpt><trkpt lat="41.99658758052201" lon="-0.636971536832696"><ele>361.0</ele><time>2026-03-30T15:00:48Z</time></trkpt><trkpt lat="41.996608382932195" lon="-0.6373055956188157"><ele>361.0</ele><time>2026-03-30T15:00:49Z</time></trkpt><trkpt lat="41.99662551320683" lon="-0.6376318192356132"><ele>361.5</ele><time>2026-03-30T15:00:50Z</time></trkpt><trkpt lat="41.996642293855345" lon="-0.6379453879657561"><ele>362.0</ele><time>2026-03-30T15:00:51Z</time></trkpt><trkpt lat="41.99665944577091" lon="-0.6382499609811675"><ele>361.5</ele><time>2026-03-30T15:00:52Z</time></trkpt><trkpt lat="41.99667566566356" lon="-0.6385562943311228"><ele>361.0</ele><time>2026-03-30T15:00:53Z</time></trkpt><trkpt lat="41.99668955313939" lon="-0.6388672086380689"><ele>360.5</ele><time>2026-03-30T15:00:54Z</time></trkpt><trkpt lat="41.996702692813166" lon="-0.6391801316022063"><ele>360.0</ele><time>2026-03-30T15:00:55Z</time></trkpt><trkpt lat="41.99671491348281" lon="-0.6394904547274958"><ele>359.5</ele><time>2026-03-30T15:00:56Z</time></trkpt><trkpt lat="41.99672707423406" lon="-0.6398022344024173"><ele>359.0</ele><time>2026-03-30T15:00:57Z</time></trkpt><trkpt lat="41.99674091596275" lon="-0.640108425753654"><ele>358.5</ele><time>2026-03-30T15:00:58Z</time></trkpt><trkpt lat="41.996754962024205" lon="-0.6404148608597577"><ele>358.0</ele><time>2026-03-30T15:00:59Z</time></trkpt><trkpt lat="41.99676446537752" lon="-0.6407126904788034"><ele>358.0</ele><time>2026-03-30T15:01:00Z</time></trkpt><trkpt lat="41.99677909020202" lon="-0.641010393094485"><ele>358.0</ele><time>2026-03-30T15:01:01Z</time></trkpt><trkpt lat="41.99679355345363" lon="-0.6412940851299301"><ele>358.0</ele><time>2026-03-30T15:01:02Z</time></trkpt><trkpt lat="41.99680719377139" lon="-0.6415743487134851"><ele>358.0</ele><time>2026-03-30T15:01:03Z</time></trkpt><trkpt lat="41.99681850554714" lon="-0.6418520524250773"><ele>358.0</ele><time>2026-03-30T15:01:04Z</time></trkpt><trkpt lat="41.99683118591976" lon="-0.6421239918460746"><ele>358.0</ele><time>2026-03-30T15:01:05Z</time></trkpt><trkpt lat="41.996842148095034" lon="-0.6423950098523236"><ele>358.0</ele><time>2026-03-30T15:01:06Z</time></trkpt><trkpt lat="41.99685916250826" lon="-0.6426633398250282"><ele>358.0</ele><time>2026-03-30T15:01:07Z</time></trkpt><trkpt lat="41.99686803136433" lon="-0.6429378675540799"><ele>358.0</ele><time>2026-03-30T15:01:08Z</time></trkpt><trkpt lat="41.99687864885558" lon="-0.643217344523126"><ele>358.0</ele><time>2026-03-30T15:01:09Z</time></trkpt><trkpt lat="41.9968861722405" lon="-0.6434973071733678"><ele>358.0</ele><time>2026-03-30T15:01:10Z</time></trkpt><trkpt lat="41.99688944465587" lon="-0.6437742592756378"><ele>358.0</ele><time>2026-03-30T15:01:11Z</time></trkpt><trkpt lat="41.996882033374774" lon="-0.6440517296026362"><ele>358.0</ele><time>2026-03-30T15:01:12Z</time></trkpt><trkpt lat="41.996856175869" lon="-0.6443332839970811"><ele>358.0</ele><time>2026-03-30T15:01:13Z</time></trkpt><trkpt lat="41.99681842023145" lon="-0.6446102721593883"><ele>358.0</ele><time>2026-03-30T15:01:14Z</time></trkpt><trkpt lat="41.996770960518354" lon="-0.6448851918145359"><ele>358.66666666666663</ele><time>2026-03-30T15:01:15Z</time></trkpt><trkpt lat="41.99673069380231" lon="-0.6451577089851395"><ele>359.3333333333333</ele><time>2026-03-30T15:01:16Z</time></trkpt><trkpt lat="41.99669335093132" lon="-0.6454392192035352"><ele>360.0</ele><time>2026-03-30T15:01:17Z</time></trkpt><trkpt lat="41.996650748224276" lon="-0.6457355517715514"><ele>360.5</ele><time>2026-03-30T15:01:18Z</time></trkpt><trkpt lat="41.996605942913185" lon="-0.6460389359196967"><ele>361.0</ele><time>2026-03-30T15:01:19Z</time></trkpt><trkpt lat="41.99656519433392" lon="-0.6463370730953721"><ele>361.3333333333333</ele><time>2026-03-30T15:01:20Z</time></trkpt><trkpt lat="41.996530890957004" lon="-0.6466175563590123"><ele>361.6666666666667</ele><time>2026-03-30T15:01:21Z</time></trkpt><trkpt lat="41.99649334045063" lon="-0.6468910682060133"><ele>362.0</ele><time>2026-03-30T15:01:22Z</time></trkpt><trkpt lat="41.99645597287683" lon="-0.6471713107843611"><ele>362.0</ele><time>2026-03-30T15:01:23Z</time></trkpt><trkpt lat="41.99641467893149" lon="-0.6474568075331113"><ele>362.0</ele><time>2026-03-30T15:01:24Z</time></trkpt><trkpt lat="41.99637575199772" lon="-0.6477387025974229"><ele>362.0</ele><time>2026-03-30T15:01:25Z</time></trkpt><trkpt lat="41.99633683189531" lon="-0.6480195340801478"><ele>361.6666666666667</ele><time>2026-03-30T15:01:26Z</time></trkpt><trkpt lat="41.99629761168743" lon="-0.6483006312925663"><ele>361.3333333333333</ele><time>2026-03-30T15:01:27Z</time></trkpt><trkpt lat="41.9962570161694" lon="-0.6485837922288207"><ele>361.0</ele><time>2026-03-30T15:01:28Z</time></trkpt><trkpt lat="41.99621768035011" lon="-0.6488596319675901"><ele>361.0</ele><time>2026-03-30T15:01:29Z</time></trkpt><trkpt lat="41.99618206445326" lon="-0.6491344553733516"><ele>361.0</ele><time>2026-03-30T15:01:30Z</time></trkpt><trkpt lat="41.99616132109379" lon="-0.6494107090835561"><ele>361.0</ele><time>2026-03-30T15:01:31Z</time></trkpt><trkpt lat="41.996166727109404" lon="-0.6496899152641302"><ele>361.3333333333333</ele><time>2026-03-30T15:01:32Z</time></trkpt><trkpt lat="41.99620395195134" lon="-0.6499606373658435"><ele>361.6666666666667</ele><time>2026-03-30T15:01:33Z</time></trkpt><trkpt lat="41.99626044030118" lon="-0.6502337638502651"><ele>362.0</ele><time>2026-03-30T15:01:34Z</time></trkpt><trkpt lat="41.99631191415286" lon="-0.6505084370403954"><ele>361.33333333333337</ele><time>2026-03-30T15:01:35Z</time></trkpt><trkpt lat="41.996356818102534" lon="-0.6507784962156995"><ele>360.6666666666667</ele><time>2026-03-30T15:01:36Z</time></trkpt><trkpt lat="41.996391193354015" lon="-0.6510597064279793"><ele>360.0</ele><time>2026-03-30T15:01:37Z</time></trkpt><trkpt lat="41.9964306789111" lon="-0.6513265260036855"><ele>360.0</ele><time>2026-03-30T15:01:38Z</time></trkpt><trkpt lat="41.99647273711064" lon="-0.6516000538598917"><ele>360.0</ele><time>2026-03-30T15:01:39Z</time></trkpt><trkpt lat="41.996508436662594" lon="-0.6518791432572765"><ele>360.0</ele><time>2026-03-30T15:01:40Z</time></trkpt><trkpt lat="41.99655350799286" lon="-0.6521479488987623"><ele>358.6666666666667</ele><time>2026-03-30T15:01:41Z</time></trkpt><trkpt lat="41.9965858758524" lon="-0.6523972400654225"><ele>357.33333333333337</ele><time>2026-03-30T15:01:42Z</time></trkpt><trkpt lat="41.99662061177859" lon="-0.6525899307227239"><ele>356.0</ele><time>2026-03-30T15:01:43Z</time></trkpt><trkpt lat="41.99666548088228" lon="-0.6527396139310834"><ele>355.20000000000005</ele><time>2026-03-30T15:01:44Z</time></trkpt><trkpt lat="41.99671955012525" lon="-0.6528342783660229"><ele>354.40000000000003</ele><time>2026-03-30T15:01:45Z</time></trkpt><trkpt lat="41.99677570533663" lon="-0.6529052262942948"><ele>353.6</ele><time>2026-03-30T15:01:46Z</time></trkpt><trkpt lat="41.99682757639315" lon="-0.6529576114767376"><ele>352.8</ele><time>2026-03-30T15:01:48Z</time></trkpt><trkpt lat="41.99688322247471" lon="-0.6530109511574388"><ele>352.0</ele><time>2026-03-30T15:01:51Z</time></trkpt><trkpt lat="41.99679169069184" lon="-0.6531998599073706"><ele>352.0</ele><time>2026-03-30T15:01:52Z</time></trkpt><trkpt lat="41.99670522893654" lon="-0.6533353550371934"><ele>352.0</ele><time>2026-03-30T15:01:53Z</time></trkpt><trkpt lat="41.99664806978697" lon="-0.653453131298992"><ele>352.0</ele><time>2026-03-30T15:01:54Z</time></trkpt><trkpt lat="41.99657507364713" lon="-0.6535991042150369"><ele>352.0</ele><time>2026-03-30T15:01:55Z</time></trkpt><trkpt lat="41.99648339869752" lon="-0.6537812729955612"><ele>352.3333333333333</ele><time>2026-03-30T15:01:56Z</time></trkpt><trkpt lat="41.996378211681915" lon="-0.6540076639998373"><ele>352.6666666666667</ele><time>2026-03-30T15:01:57Z</time></trkpt><trkpt lat="41.996253467738214" lon="-0.6542744979963128"><ele>353.0</ele><time>2026-03-30T15:01:58Z</time></trkpt><trkpt lat="41.99614098476813" lon="-0.6544859888285409"><ele>352.33333333333337</ele><time>2026-03-30T15:01:59Z</time></trkpt><trkpt lat="41.99603654210234" lon="-0.6546676047360073"><ele>351.6666666666667</ele><time>2026-03-30T15:02:00Z</time></trkpt><trkpt lat="41.99593623690492" lon="-0.6548440569582727"><ele>351.0</ele><time>2026-03-30T15:02:01Z</time></trkpt><trkpt lat="41.995829054377246" lon="-0.6550431668950942"><ele>351.6666666666667</ele><time>2026-03-30T15:02:02Z</time></trkpt><trkpt lat="41.99571751919132" lon="-0.6552577331283356"><ele>352.33333333333337</ele><time>2026-03-30T15:02:03Z</time></trkpt><trkpt lat="41.99559408030863" lon="-0.6554831344976887"><ele>353.0</ele><time>2026-03-30T15:02:04Z</time></trkpt><trkpt lat="41.99547226831026" lon="-0.6557189297826267"><ele>353.0</ele><time>2026-03-30T15:02:05Z</time></trkpt><trkpt lat="41.99534905828113" lon="-0.655964535852317"><ele>353.0</ele><time>2026-03-30T15:02:06Z</time></trkpt><trkpt lat="41.995215816668654" lon="-0.656205079632803"><ele>353.0</ele><time>2026-03-30T15:02:07Z</time></trkpt><trkpt lat="41.99508498855071" lon="-0.656461235777083"><ele>352.5</ele><time>2026-03-30T15:02:08Z</time></trkpt><trkpt lat="41.994962653763324" lon="-0.6567130933438671"><ele>352.0</ele><time>2026-03-30T15:02:09Z</time></trkpt><trkpt lat="41.99481542007089" lon="-0.656958861240766"><ele>352.0</ele><time>2026-03-30T15:02:10Z</time></trkpt><trkpt lat="41.99467722027254" lon="-0.6572219752248403"><ele>352.0</ele><time>2026-03-30T15:02:11Z</time></trkpt><trkpt lat="41.994554650497754" lon="-0.6574800651330789"><ele>352.0</ele><time>2026-03-30T15:02:12Z</time></trkpt><trkpt lat="41.99441694118667" lon="-0.6577249144941043"><ele>352.0</ele><time>2026-03-30T15:02:13Z</time></trkpt><trkpt lat="41.99428430036965" lon="-0.6579662085733392"><ele>351.0</ele><time>2026-03-30T15:02:14Z</time></trkpt><trkpt lat="41.994160199886025" lon="-0.6582092736682474"><ele>350.0</ele><time>2026-03-30T15:02:15Z</time></trkpt><trkpt lat="41.99403657173923" lon="-0.6584583715513181"><ele>349.0</ele><time>2026-03-30T15:02:16Z</time></trkpt><trkpt lat="41.99390337862545" lon="-0.6587045367937076"><ele>349.0</ele><time>2026-03-30T15:02:17Z</time></trkpt><trkpt lat="41.99377228037847" lon="-0.6589573396122645"><ele>349.0</ele><time>2026-03-30T15:02:18Z</time></trkpt><trkpt lat="41.99363856841775" lon="-0.6592254860251315"><ele>349.5</ele><time>2026-03-30T15:02:19Z</time></trkpt><trkpt lat="41.99349460590139" lon="-0.659488406101699"><ele>350.0</ele><time>2026-03-30T15:02:20Z</time></trkpt><trkpt lat="41.99335234511971" lon="-0.6597571509150314"><ele>349.5</ele><time>2026-03-30T15:02:21Z</time></trkpt><trkpt lat="41.993205029607644" lon="-0.6600412047472344"><ele>349.0</ele><time>2026-03-30T15:02:22Z</time></trkpt><trkpt lat="41.99305270062788" lon="-0.660334243199501"><ele>349.0</ele><time>2026-03-30T15:02:23Z</time></trkpt><trkpt lat="41.992903001643086" lon="-0.6606274667063264"><ele>349.0</ele><time>2026-03-30T15:02:24Z</time></trkpt><trkpt lat="41.99260837215923" lon="-0.661166692406446"><ele>349.0</ele><time>2026-03-30T15:02:26Z</time></trkpt><trkpt lat="41.992475064440676" lon="-0.6614396845185898"><ele>349.0</ele><time>2026-03-30T15:02:27Z</time></trkpt><trkpt lat="41.99233284047207" lon="-0.6617038615249008"><ele>349.0</ele><time>2026-03-30T15:02:28Z</time></trkpt><trkpt lat="41.99218730555677" lon="-0.6619655521655631"><ele>349.0</ele><time>2026-03-30T15:02:29Z</time></trkpt><trkpt lat="41.99206118473793" lon="-0.662212357585422"><ele>349.0</ele><time>2026-03-30T15:02:30Z</time></trkpt><trkpt lat="41.991934947881774" lon="-0.6624490268110091"><ele>349.0</ele><time>2026-03-30T15:02:31Z</time></trkpt><trkpt lat="41.99181182726853" lon="-0.6626903564580701"><ele>349.0</ele><time>2026-03-30T15:02:32Z</time></trkpt><trkpt lat="41.99168562195035" lon="-0.6629221177260006"><ele>348.66666666666663</ele><time>2026-03-30T15:02:33Z</time></trkpt><trkpt lat="41.99155327718515" lon="-0.6631434628571019"><ele>348.3333333333333</ele><time>2026-03-30T15:02:34Z</time></trkpt><trkpt lat="41.991424429812845" lon="-0.6633637038215813"><ele>348.0</ele><time>2026-03-30T15:02:35Z</time></trkpt><trkpt lat="41.99132617761921" lon="-0.6635725449713608"><ele>348.0</ele><time>2026-03-30T15:02:36Z</time></trkpt><trkpt lat="41.99124662524083" lon="-0.6637633971600818"><ele>348.0</ele><time>2026-03-30T15:02:37Z</time></trkpt><trkpt lat="41.99117622459155" lon="-0.6639370558879575"><ele>348.0</ele><time>2026-03-30T15:02:38Z</time></trkpt><trkpt lat="41.99109649463485" lon="-0.6640778177197311"><ele>348.0</ele><time>2026-03-30T15:02:39Z</time></trkpt><trkpt lat="41.991046244087904" lon="-0.6642154351796377"><ele>348.0</ele><time>2026-03-30T15:02:40Z</time></trkpt><trkpt lat="41.991040651544694" lon="-0.6643589967444105"><ele>348.0</ele><time>2026-03-30T15:02:41Z</time></trkpt><trkpt lat="41.99107629618663" lon="-0.6644901591139165"><ele>348.0</ele><time>2026-03-30T15:02:42Z</time></trkpt><trkpt lat="41.991175298540426" lon="-0.6646095005525874"><ele>348.0</ele><time>2026-03-30T15:02:43Z</time></trkpt><trkpt lat="41.99127273464229" lon="-0.6647278149834958"><ele>348.0</ele><time>2026-03-30T15:02:44Z</time></trkpt><trkpt lat="41.99138231778293" lon="-0.6648359925511631"><ele>348.0</ele><time>2026-03-30T15:02:45Z</time></trkpt><trkpt lat="41.991498549586495" lon="-0.6649464762989101"><ele>348.0</ele><time>2026-03-30T15:02:46Z</time></trkpt><trkpt lat="41.99161742130657" lon="-0.6650627805098382"><ele>348.0</ele><time>2026-03-30T15:02:47Z</time></trkpt><trkpt lat="41.99174104619735" lon="-0.6651812388747702"><ele>348.75</ele><time>2026-03-30T15:02:48Z</time></trkpt><trkpt lat="41.99186439487635" lon="-0.6653014080386256"><ele>349.5</ele><time>2026-03-30T15:02:49Z</time></trkpt><trkpt lat="41.99198535557412" lon="-0.6654174650884007"><ele>350.25</ele><time>2026-03-30T15:02:50Z</time></trkpt><trkpt lat="41.9920900476713" lon="-0.6655114675366101"><ele>351.0</ele><time>2026-03-30T15:02:51Z</time></trkpt><trkpt lat="41.99219347693014" lon="-0.6655997459691143"><ele>351.0</ele><time>2026-03-30T15:02:52Z</time></trkpt><trkpt lat="41.99227945474789" lon="-0.6656872025523686"><ele>351.0</ele><time>2026-03-30T15:02:53Z</time></trkpt><trkpt lat="41.99235266852571" lon="-0.6657725940325634"><ele>351.0</ele><time>2026-03-30T15:02:54Z</time></trkpt><trkpt lat="41.992414863809834" lon="-0.6658362624551589"><ele>351.0</ele><time>2026-03-30T15:02:55Z</time></trkpt><trkpt lat="41.992490084024894" lon="-0.6658761675391996"><ele>351.0</ele><time>2026-03-30T15:02:56Z</time></trkpt><trkpt lat="41.99256785259961" lon="-0.6658932914970084"><ele>351.0</ele><time>2026-03-30T15:02:57Z</time></trkpt><trkpt lat="41.99264989316168" lon="-0.665891748246189"><ele>351.0</ele><time>2026-03-30T15:02:58Z</time></trkpt><trkpt lat="41.992738435896996" lon="-0.6659069374503432"><ele>351.0</ele><time>2026-03-30T15:02:59Z</time></trkpt><trkpt lat="41.992814792993556" lon="-0.6659679516151801"><ele>351.0</ele><time>2026-03-30T15:03:00Z</time></trkpt><trkpt lat="41.99287178914382" lon="-0.6660663337629918"><ele>351.0</ele><time>2026-03-30T15:03:01Z</time></trkpt><trkpt lat="41.99289896497319" lon="-0.6661954014003707"><ele>351.0</ele><time>2026-03-30T15:03:02Z</time></trkpt><trkpt lat="41.99293939672602" lon="-0.6663127018801085"><ele>351.4</ele><time>2026-03-30T15:03:03Z</time></trkpt><trkpt lat="41.99300596751457" lon="-0.6664241464789364"><ele>351.8</ele><time>2026-03-30T15:03:04Z</time></trkpt><trkpt lat="41.99308900146973" lon="-0.6665076940822117"><ele>352.2</ele><time>2026-03-30T15:03:05Z</time></trkpt><trkpt lat="41.99317621675208" lon="-0.666579094112953"><ele>352.59999999999997</ele><time>2026-03-30T15:03:06Z</time></trkpt><trkpt lat="41.99326576598583" lon="-0.6666601337718726"><ele>353.0</ele><time>2026-03-30T15:03:07Z</time></trkpt><trkpt lat="41.99335445008995" lon="-0.6667584322794784"><ele>353.5</ele><time>2026-03-30T15:03:08Z</time></trkpt><trkpt lat="41.99344658867679" lon="-0.6668699687808117"><ele>354.0</ele><time>2026-03-30T15:03:09Z</time></trkpt><trkpt lat="41.9935449616753" lon="-0.6669972308274326"><ele>354.5</ele><time>2026-03-30T15:03:10Z</time></trkpt><trkpt lat="41.99364167441539" lon="-0.6671411200197938"><ele>355.0</ele><time>2026-03-30T15:03:11Z</time></trkpt><trkpt lat="41.993742371371575" lon="-0.6672943651662119"><ele>355.66666666666663</ele><time>2026-03-30T15:03:12Z</time></trkpt><trkpt lat="41.993839809429936" lon="-0.6674697407901737"><ele>356.3333333333333</ele><time>2026-03-30T15:03:13Z</time></trkpt><trkpt lat="41.99392617838496" lon="-0.6676643205189334"><ele>357.0</ele><time>2026-03-30T15:03:14Z</time></trkpt><trkpt lat="41.994007736263605" lon="-0.6678762556789651"><ele>357.3333333333333</ele><time>2026-03-30T15:03:15Z</time></trkpt><trkpt lat="41.994080092700294" lon="-0.668091860465775"><ele>357.66666666666663</ele><time>2026-03-30T15:03:16Z</time></trkpt><trkpt lat="41.994142456510986" lon="-0.6683266920748712"><ele>358.0</ele><time>2026-03-30T15:03:17Z</time></trkpt><trkpt lat="41.994185489127446" lon="-0.6685710773834921"><ele>360.0</ele><time>2026-03-30T15:03:18Z</time></trkpt><trkpt lat="41.9942153660103" lon="-0.6688235000417538"><ele>362.0</ele><time>2026-03-30T15:03:19Z</time></trkpt><trkpt lat="41.99424138754662" lon="-0.6690725080279684"><ele>364.0</ele><time>2026-03-30T15:03:20Z</time></trkpt><trkpt lat="41.994269343051336" lon="-0.6693288443385237"><ele>365.0</ele><time>2026-03-30T15:03:21Z</time></trkpt><trkpt lat="41.994293114731676" lon="-0.6695840443670568"><ele>366.0</ele><time>2026-03-30T15:03:22Z</time></trkpt><trkpt lat="41.99431756621223" lon="-0.669858224408154"><ele>367.0</ele><time>2026-03-30T15:03:23Z</time></trkpt><trkpt lat="41.99434435039009" lon="-0.6701442690382557"><ele>368.0</ele><time>2026-03-30T15:03:24Z</time></trkpt><trkpt lat="41.99437072747888" lon="-0.6704413991501108"><ele>369.0</ele><time>2026-03-30T15:03:25Z</time></trkpt><trkpt lat="41.99440114252703" lon="-0.6707467163978557"><ele>369.0</ele><time>2026-03-30T15:03:26Z</time></trkpt><trkpt lat="41.994430077244225" lon="-0.671060373678763"><ele>369.0</ele><time>2026-03-30T15:03:27Z</time></trkpt><trkpt lat="41.99445992308245" lon="-0.6713736676661146"><ele>370.0</ele><time>2026-03-30T15:03:28Z</time></trkpt><trkpt lat="41.994490268045276" lon="-0.6716955096579592"><ele>371.0</ele><time>2026-03-30T15:03:29Z</time></trkpt><trkpt lat="41.994523773386646" lon="-0.6720121280661618"><ele>373.0</ele><time>2026-03-30T15:03:30Z</time></trkpt><trkpt lat="41.99455517754701" lon="-0.6723234164293855"><ele>375.0</ele><time>2026-03-30T15:03:31Z</time></trkpt><trkpt lat="41.99458434449602" lon="-0.6726275594779276"><ele>375.0</ele><time>2026-03-30T15:03:32Z</time></trkpt><trkpt lat="41.99460879912301" lon="-0.6729203095216706"><ele>375.0</ele><time>2026-03-30T15:03:33Z</time></trkpt><trkpt lat="41.994634352569385" lon="-0.6732136079147371"><ele>375.0</ele><time>2026-03-30T15:03:34Z</time></trkpt><trkpt lat="41.99466065670097" lon="-0.673503221232229"><ele>374.6666666666667</ele><time>2026-03-30T15:03:35Z</time></trkpt><trkpt lat="41.99468726655155" lon="-0.6737950662950195"><ele>374.33333333333337</ele><time>2026-03-30T15:03:36Z</time></trkpt><trkpt lat="41.99471951560952" lon="-0.6740921122441654"><ele>374.0</ele><time>2026-03-30T15:03:37Z</time></trkpt><trkpt lat="41.9947505095253" lon="-0.6743832937048785"><ele>375.0</ele><time>2026-03-30T15:03:38Z</time></trkpt><trkpt lat="41.99477882978137" lon="-0.67467668701571"><ele>376.0</ele><time>2026-03-30T15:03:39Z</time></trkpt><trkpt lat="41.99480162276148" lon="-0.6749676914805239"><ele>377.0</ele><time>2026-03-30T15:03:40Z</time></trkpt><trkpt lat="41.994827429148636" lon="-0.6752688065058864"><ele>377.0</ele><time>2026-03-30T15:03:41Z</time></trkpt><trkpt lat="41.99485541820308" lon="-0.6755522672950671"><ele>377.0</ele><time>2026-03-30T15:03:42Z</time></trkpt><trkpt lat="41.99488081308834" lon="-0.6758463976516176"><ele>377.0</ele><time>2026-03-30T15:03:43Z</time></trkpt><trkpt lat="41.9949051815214" lon="-0.6761337031060672"><ele>377.0</ele><time>2026-03-30T15:03:44Z</time></trkpt><trkpt lat="41.99492612182566" lon="-0.6764226459156785"><ele>377.0</ele><time>2026-03-30T15:03:45Z</time></trkpt><trkpt lat="41.99494067680175" lon="-0.676721563300059"><ele>377.0</ele><time>2026-03-30T15:03:46Z</time></trkpt><trkpt lat="41.99494545859819" lon="-0.6770179844123437"><ele>378.0</ele><time>2026-03-30T15:03:47Z</time></trkpt><trkpt lat="41.99493726011619" lon="-0.6773178966574791"><ele>379.0</ele><time>2026-03-30T15:03:48Z</time></trkpt><trkpt lat="41.994925198412034" lon="-0.6776179820871137"><ele>380.0</ele><time>2026-03-30T15:03:49Z</time></trkpt><trkpt lat="41.99492057553155" lon="-0.6779104740376272"><ele>381.6666666666667</ele><time>2026-03-30T15:03:50Z</time></trkpt><trkpt lat="41.99491122605625" lon="-0.6781932953099533"><ele>383.33333333333337</ele><time>2026-03-30T15:03:51Z</time></trkpt><trkpt lat="41.99490088618282" lon="-0.678466801813962"><ele>385.0</ele><time>2026-03-30T15:03:52Z</time></trkpt><trkpt lat="41.99489091606439" lon="-0.678751199411371"><ele>385.6666666666667</ele><time>2026-03-30T15:03:53Z</time></trkpt><trkpt lat="41.99488009293201" lon="-0.679043688272883"><ele>386.33333333333337</ele><time>2026-03-30T15:03:54Z</time></trkpt><trkpt lat="41.9948753289404" lon="-0.6793296383358258"><ele>387.0</ele><time>2026-03-30T15:03:55Z</time></trkpt><trkpt lat="41.99487483669978" lon="-0.6796300039482195"><ele>389.33333333333337</ele><time>2026-03-30T15:03:56Z</time></trkpt><trkpt lat="41.99489640879383" lon="-0.6799213327102629"><ele>391.6666666666667</ele><time>2026-03-30T15:03:57Z</time></trkpt><trkpt lat="41.994934718031956" lon="-0.6801941998034055"><ele>394.0</ele><time>2026-03-30T15:03:58Z</time></trkpt><trkpt lat="41.99500037795557" lon="-0.6804595928635528"><ele>395.6666666666667</ele><time>2026-03-30T15:03:59Z</time></trkpt><trkpt lat="41.99508662367833" lon="-0.6807113763651955"><ele>397.33333333333337</ele><time>2026-03-30T15:04:00Z</time></trkpt><trkpt lat="41.995190460242874" lon="-0.6809508183512337"><ele>399.0</ele><time>2026-03-30T15:04:01Z</time></trkpt><trkpt lat="41.995314456504005" lon="-0.681182824636023"><ele>399.0</ele><time>2026-03-30T15:04:02Z</time></trkpt><trkpt lat="41.99545511161139" lon="-0.6813947780711925"><ele>399.0</ele><time>2026-03-30T15:04:03Z</time></trkpt><trkpt lat="41.99561431950912" lon="-0.6815882511583253"><ele>399.0</ele><time>2026-03-30T15:04:04Z</time></trkpt><trkpt lat="41.99578788321978" lon="-0.6817655513769694"><ele>399.66666666666663</ele><time>2026-03-30T15:04:05Z</time></trkpt><trkpt lat="41.9959789726681" lon="-0.6819008169159325"><ele>400.3333333333333</ele><time>2026-03-30T15:04:06Z</time></trkpt><trkpt lat="41.99617769006215" lon="-0.6820136326396675"><ele>401.0</ele><time>2026-03-30T15:04:07Z</time></trkpt><trkpt lat="41.99638506075409" lon="-0.6821043219078073"><ele>401.0</ele><time>2026-03-30T15:04:08Z</time></trkpt><trkpt lat="41.99660123686703" lon="-0.6821760784962009"><ele>401.0</ele><time>2026-03-30T15:04:09Z</time></trkpt><trkpt lat="41.99681425561882" lon="-0.6822279187016128"><ele>401.0</ele><time>2026-03-30T15:04:10Z</time></trkpt><trkpt lat="41.997026869633494" lon="-0.6822698151659583"><ele>404.0</ele><time>2026-03-30T15:04:11Z</time></trkpt><trkpt lat="41.99723586029711" lon="-0.6823190164151031"><ele>407.0</ele><time>2026-03-30T15:04:12Z</time></trkpt><trkpt lat="41.9974383966371" lon="-0.6823856334620798"><ele>410.0</ele><time>2026-03-30T15:04:13Z</time></trkpt><trkpt lat="41.997634483633796" lon="-0.6824804795043315"><ele>414.0</ele><time>2026-03-30T15:04:14Z</time></trkpt><trkpt lat="41.997822558227845" lon="-0.6825980471161095"><ele>418.0</ele><time>2026-03-30T15:04:15Z</time></trkpt><trkpt lat="41.99800243537375" lon="-0.682729972903381"><ele>422.0</ele><time>2026-03-30T15:04:16Z</time></trkpt><trkpt lat="41.998165064969164" lon="-0.6828854993761726"><ele>422.0</ele><time>2026-03-30T15:04:17Z</time></trkpt><trkpt lat="41.998322905553245" lon="-0.6830477637019629"><ele>422.0</ele><time>2026-03-30T15:04:18Z</time></trkpt><trkpt lat="41.998461718880115" lon="-0.6832275642818844"><ele>422.0</ele><time>2026-03-30T15:04:19Z</time></trkpt><trkpt lat="41.99860317773958" lon="-0.6834273943830291"><ele>423.3333333333333</ele><time>2026-03-30T15:04:20Z</time></trkpt><trkpt lat="41.99873200588656" lon="-0.6836423108707786"><ele>424.66666666666663</ele><time>2026-03-30T15:04:21Z</time></trkpt><trkpt lat="41.9988465916768" lon="-0.6838709344958841"><ele>426.0</ele><time>2026-03-30T15:04:22Z</time></trkpt><trkpt lat="41.99894143498679" lon="-0.6841087764821727"><ele>426.0</ele><time>2026-03-30T15:04:23Z</time></trkpt><trkpt lat="41.999025929343254" lon="-0.6843576317915554"><ele>426.0</ele><time>2026-03-30T15:04:24Z</time></trkpt><trkpt lat="41.99908588449429" lon="-0.684601591168097"><ele>426.0</ele><time>2026-03-30T15:04:25Z</time></trkpt><trkpt lat="41.99913054320613" lon="-0.6848416554810378"><ele>425.66666666666663</ele><time>2026-03-30T15:04:26Z</time></trkpt><trkpt lat="41.999159398721645" lon="-0.6850796768226257"><ele>425.3333333333333</ele><time>2026-03-30T15:04:27Z</time></trkpt><trkpt lat="41.99918876363069" lon="-0.6853170019072596"><ele>425.0</ele><time>2026-03-30T15:04:28Z</time></trkpt><trkpt lat="41.99920617687342" lon="-0.6855588776572598"><ele>424.66666666666663</ele><time>2026-03-30T15:04:29Z</time></trkpt><trkpt lat="41.999216340014854" lon="-0.6858092748536369"><ele>424.33333333333337</ele><time>2026-03-30T15:04:30Z</time></trkpt><trkpt lat="41.999230941902006" lon="-0.6860556212809799"><ele>424.0</ele><time>2026-03-30T15:04:31Z</time></trkpt><trkpt lat="41.99924748035436" lon="-0.6863067357039369"><ele>423.33333333333337</ele><time>2026-03-30T15:04:32Z</time></trkpt><trkpt lat="41.99926138217247" lon="-0.6865708016381146"><ele>422.66666666666663</ele><time>2026-03-30T15:04:33Z</time></trkpt><trkpt lat="41.99927881598711" lon="-0.6868462787118582"><ele>422.0</ele><time>2026-03-30T15:04:34Z</time></trkpt><trkpt lat="41.99929653732224" lon="-0.6871289134272912"><ele>421.3333333333333</ele><time>2026-03-30T15:04:35Z</time></trkpt><trkpt lat="41.999314150269136" lon="-0.687420525337933"><ele>420.66666666666663</ele><time>2026-03-30T15:04:36Z</time></trkpt><trkpt lat="41.99933521805637" lon="-0.6877120869033165"><ele>420.0</ele><time>2026-03-30T15:04:37Z</time></trkpt><trkpt lat="41.9993531440264" lon="-0.688012222415951"><ele>419.66666666666663</ele><time>2026-03-30T15:04:38Z</time></trkpt><trkpt lat="41.999371024426004" lon="-0.6883134889670279"><ele>419.3333333333333</ele><time>2026-03-30T15:04:39Z</time></trkpt><trkpt lat="41.99938738059877" lon="-0.6886011372395794"><ele>419.0</ele><time>2026-03-30T15:04:40Z</time></trkpt><trkpt lat="41.999411781902275" lon="-0.6888811506508047"><ele>418.66666666666663</ele><time>2026-03-30T15:04:41Z</time></trkpt><trkpt lat="41.99943346667839" lon="-0.6891622317962633"><ele>418.33333333333337</ele><time>2026-03-30T15:04:42Z</time></trkpt><trkpt lat="41.999445590943694" lon="-0.6894551547463448"><ele>418.0</ele><time>2026-03-30T15:04:43Z</time></trkpt><trkpt lat="41.999461454841565" lon="-0.6897447454508244"><ele>417.0</ele><time>2026-03-30T15:04:44Z</time></trkpt><trkpt lat="41.999484568586304" lon="-0.6900347772568083"><ele>416.0</ele><time>2026-03-30T15:04:45Z</time></trkpt><trkpt lat="41.99950318722387" lon="-0.6903249939342718"><ele>415.0</ele><time>2026-03-30T15:04:46Z</time></trkpt><trkpt lat="41.99952060829823" lon="-0.6906283104294898"><ele>414.6666666666667</ele><time>2026-03-30T15:04:47Z</time></trkpt><trkpt lat="41.99954200069808" lon="-0.6909272132909505"><ele>414.33333333333337</ele><time>2026-03-30T15:04:48Z</time></trkpt><trkpt lat="41.9995638434338" lon="-0.6912203424869754"><ele>414.0</ele><time>2026-03-30T15:04:49Z</time></trkpt><trkpt lat="41.999583609170216" lon="-0.6915115127681312"><ele>413.0</ele><time>2026-03-30T15:04:50Z</time></trkpt><trkpt lat="41.99961535680626" lon="-0.6918051312847695"><ele>412.0</ele><time>2026-03-30T15:04:51Z</time></trkpt><trkpt lat="41.999660859686536" lon="-0.6920976575092225"><ele>411.0</ele><time>2026-03-30T15:04:52Z</time></trkpt><trkpt lat="41.999717922431124" lon="-0.6923878751137443"><ele>410.33333333333337</ele><time>2026-03-30T15:04:53Z</time></trkpt><trkpt lat="41.99979077746447" lon="-0.6926694128038325"><ele>409.6666666666667</ele><time>2026-03-30T15:04:54Z</time></trkpt><trkpt lat="41.99987848029581" lon="-0.6929521774012872"><ele>409.0</ele><time>2026-03-30T15:04:55Z</time></trkpt><trkpt lat="41.999980695955145" lon="-0.6932285125149512"><ele>408.0</ele><time>2026-03-30T15:04:56Z</time></trkpt><trkpt lat="42.00009189136454" lon="-0.6935013586431026"><ele>407.0</ele><time>2026-03-30T15:04:57Z</time></trkpt><trkpt lat="42.00020447448712" lon="-0.6937755237309563"><ele>407.0</ele><time>2026-03-30T15:04:58Z</time></trkpt><trkpt lat="42.00031321631284" lon="-0.6940439061429586"><ele>407.0</ele><time>2026-03-30T15:04:59Z</time></trkpt><trkpt lat="42.00042450688972" lon="-0.6943247596815953"><ele>405.5</ele><time>2026-03-30T15:05:00Z</time></trkpt><trkpt lat="42.00053519380303" lon="-0.6946124321736209"><ele>404.0</ele><time>2026-03-30T15:05:01Z</time></trkpt><trkpt lat="42.00065441418633" lon="-0.6948936747972025"><ele>404.0</ele><time>2026-03-30T15:05:02Z</time></trkpt><trkpt lat="42.00077028381659" lon="-0.695180838945869"><ele>404.0</ele><time>2026-03-30T15:05:03Z</time></trkpt><trkpt lat="42.0008858178566" lon="-0.6954633527553218"><ele>404.0</ele><time>2026-03-30T15:05:04Z</time></trkpt><trkpt lat="42.001001333812155" lon="-0.6957488613129804"><ele>404.0</ele><time>2026-03-30T15:05:05Z</time></trkpt><trkpt lat="42.001116394004825" lon="-0.6960358325689177"><ele>405.0</ele><time>2026-03-30T15:05:06Z</time></trkpt><trkpt lat="42.001229850885686" lon="-0.6963296498973097"><ele>406.0</ele><time>2026-03-30T15:05:07Z</time></trkpt><trkpt lat="42.00134667696278" lon="-0.6966271596406439"><ele>406.0</ele><time>2026-03-30T15:05:08Z</time></trkpt><trkpt lat="42.001467782359406" lon="-0.6969240764672793"><ele>406.0</ele><time>2026-03-30T15:05:09Z</time></trkpt><trkpt lat="42.00158879558717" lon="-0.6972264626051621"><ele>406.0</ele><time>2026-03-30T15:05:10Z</time></trkpt><trkpt lat="42.00171494870877" lon="-0.6975357917454846"><ele>406.0</ele><time>2026-03-30T15:05:11Z</time></trkpt><trkpt lat="42.00184351887285" lon="-0.6978469953626358"><ele>406.0</ele><time>2026-03-30T15:05:12Z</time></trkpt><trkpt lat="42.00196255501451" lon="-0.6981486453567359"><ele>406.0</ele><time>2026-03-30T15:05:13Z</time></trkpt><trkpt lat="42.0020763882959" lon="-0.6984319520279179"><ele>405.5</ele><time>2026-03-30T15:05:14Z</time></trkpt><trkpt lat="42.00218681671586" lon="-0.6987029021284182"><ele>405.0</ele><time>2026-03-30T15:05:15Z</time></trkpt><trkpt lat="42.00230441223123" lon="-0.69898491724141"><ele>405.0</ele><time>2026-03-30T15:05:16Z</time></trkpt><trkpt lat="42.00241341147588" lon="-0.6992604671042445"><ele>405.0</ele><time>2026-03-30T15:05:17Z</time></trkpt><trkpt lat="42.0025242751774" lon="-0.6995359264393017"><ele>405.5</ele><time>2026-03-30T15:05:18Z</time></trkpt><trkpt lat="42.00263304231313" lon="-0.699809077455647"><ele>406.0</ele><time>2026-03-30T15:05:19Z</time></trkpt><trkpt lat="42.00274122637711" lon="-0.7000832804754004"><ele>405.5</ele><time>2026-03-30T15:05:20Z</time></trkpt><trkpt lat="42.00285286550495" lon="-0.700358589033807"><ele>405.0</ele><time>2026-03-30T15:05:21Z</time></trkpt><trkpt lat="42.00296701296862" lon="-0.7006418298171141"><ele>405.0</ele><time>2026-03-30T15:05:22Z</time></trkpt><trkpt lat="42.003084497657234" lon="-0.7009403937449191"><ele>405.0</ele><time>2026-03-30T15:05:23Z</time></trkpt><trkpt lat="42.003203596941724" lon="-0.7012420752477491"><ele>405.0</ele><time>2026-03-30T15:05:24Z</time></trkpt><trkpt lat="42.003325984573365" lon="-0.7015530208526763"><ele>405.0</ele><time>2026-03-30T15:05:25Z</time></trkpt><trkpt lat="42.00345113042861" lon="-0.7018711778032004"><ele>405.5</ele><time>2026-03-30T15:05:26Z</time></trkpt><trkpt lat="42.00358224016952" lon="-0.70220499029203"><ele>406.0</ele><time>2026-03-30T15:05:27Z</time></trkpt><trkpt lat="42.003714037331804" lon="-0.7025251756080948"><ele>405.5</ele><time>2026-03-30T15:05:28Z</time></trkpt><trkpt lat="42.003845353585966" lon="-0.7028496368918945"><ele>405.0</ele><time>2026-03-30T15:05:29Z</time></trkpt><trkpt lat="42.00396106446257" lon="-0.7031502050675419"><ele>405.0</ele><time>2026-03-30T15:05:30Z</time></trkpt><trkpt lat="42.004070165628434" lon="-0.7034437352312536"><ele>405.0</ele><time>2026-03-30T15:05:31Z</time></trkpt><trkpt lat="42.00416513003815" lon="-0.7037334964723317"><ele>404.0</ele><time>2026-03-30T15:05:32Z</time></trkpt><trkpt lat="42.004242875517384" lon="-0.7040262629687292"><ele>403.0</ele><time>2026-03-30T15:05:33Z</time></trkpt><trkpt lat="42.00430382754265" lon="-0.704321138508267"><ele>403.0</ele><time>2026-03-30T15:05:34Z</time></trkpt><trkpt lat="42.00434219054573" lon="-0.7046223290954845"><ele>403.0</ele><time>2026-03-30T15:05:35Z</time></trkpt><trkpt lat="42.00436360336831" lon="-0.704932185822176"><ele>402.5</ele><time>2026-03-30T15:05:36Z</time></trkpt><trkpt lat="42.00437283305971" lon="-0.7052468474520568"><ele>402.0</ele><time>2026-03-30T15:05:37Z</time></trkpt><trkpt lat="42.00436729283514" lon="-0.7055694074336827"><ele>402.0</ele><time>2026-03-30T15:05:38Z</time></trkpt><trkpt lat="42.00436218672374" lon="-0.7058942384446041"><ele>402.0</ele><time>2026-03-30T15:05:39Z</time></trkpt><trkpt lat="42.004361769646756" lon="-0.7062190915483527"><ele>400.5</ele><time>2026-03-30T15:05:40Z</time></trkpt><trkpt lat="42.00436611425664" lon="-0.7065517039144453"><ele>399.0</ele><time>2026-03-30T15:05:41Z</time></trkpt><trkpt lat="42.004365918021755" lon="-0.706874243781158"><ele>398.5</ele><time>2026-03-30T15:05:42Z</time></trkpt><trkpt lat="42.00435887820951" lon="-0.7071955074570522"><ele>398.0</ele><time>2026-03-30T15:05:43Z</time></trkpt><trkpt lat="42.00435469991145" lon="-0.7075180506817349"><ele>395.0</ele><time>2026-03-30T15:05:44Z</time></trkpt><trkpt lat="42.004360037371804" lon="-0.7078343802365714"><ele>392.0</ele><time>2026-03-30T15:05:45Z</time></trkpt><trkpt lat="42.00436760657998" lon="-0.7081602811284097"><ele>392.0</ele><time>2026-03-30T15:05:46Z</time></trkpt><trkpt lat="42.004380892692645" lon="-0.7084764787895796"><ele>392.0</ele><time>2026-03-30T15:05:47Z</time></trkpt><trkpt lat="42.00440746980609" lon="-0.7088031451632579"><ele>391.0</ele><time>2026-03-30T15:05:48Z</time></trkpt><trkpt lat="42.0044525248594" lon="-0.7091226046346699"><ele>390.0</ele><time>2026-03-30T15:05:49Z</time></trkpt><trkpt lat="42.00451193265431" lon="-0.7094557841610981"><ele>389.5</ele><time>2026-03-30T15:05:50Z</time></trkpt><trkpt lat="42.00457953123478" lon="-0.7097861986649391"><ele>389.0</ele><time>2026-03-30T15:05:51Z</time></trkpt><trkpt lat="42.00465945425294" lon="-0.7101171746156004"><ele>388.0</ele><time>2026-03-30T15:05:52Z</time></trkpt><trkpt lat="42.004740098815326" lon="-0.7104372878992493"><ele>387.0</ele><time>2026-03-30T15:05:53Z</time></trkpt><trkpt lat="42.004824423139524" lon="-0.7107681025258886"><ele>387.0</ele><time>2026-03-30T15:05:54Z</time></trkpt><trkpt lat="42.0049012986633" lon="-0.7110886495766298"><ele>387.0</ele><time>2026-03-30T15:05:55Z</time></trkpt><trkpt lat="42.00497632940219" lon="-0.7114108480980398"><ele>387.0</ele><time>2026-03-30T15:05:56Z</time></trkpt><trkpt lat="42.00505366469929" lon="-0.711734600036621"><ele>387.0</ele><time>2026-03-30T15:05:57Z</time></trkpt><trkpt lat="42.005119154660235" lon="-0.7120523167979292"><ele>386.0</ele><time>2026-03-30T15:05:58Z</time></trkpt><trkpt lat="42.00518504750572" lon="-0.7123680204484041"><ele>385.0</ele><time>2026-03-30T15:05:59Z</time></trkpt><trkpt lat="42.00524598876957" lon="-0.7126851882704678"><ele>386.0</ele><time>2026-03-30T15:06:00Z</time></trkpt><trkpt lat="42.00530462289" lon="-0.7130078349242243"><ele>387.0</ele><time>2026-03-30T15:06:01Z</time></trkpt><trkpt lat="42.00536204584352" lon="-0.7133268274226703"><ele>386.5</ele><time>2026-03-30T15:06:02Z</time></trkpt><trkpt lat="42.00542169186089" lon="-0.7136609411070967"><ele>386.0</ele><time>2026-03-30T15:06:03Z</time></trkpt><trkpt lat="42.00547939383269" lon="-0.7139960870369388"><ele>386.0</ele><time>2026-03-30T15:06:04Z</time></trkpt><trkpt lat="42.005535291704184" lon="-0.714329419499777"><ele>386.0</ele><time>2026-03-30T15:06:05Z</time></trkpt><trkpt lat="42.005595989085954" lon="-0.714661462882459"><ele>386.0</ele><time>2026-03-30T15:06:06Z</time></trkpt><trkpt lat="42.0056542709313" lon="-0.7149903854921027"><ele>386.0</ele><time>2026-03-30T15:06:07Z</time></trkpt><trkpt lat="42.005710282066396" lon="-0.7153186033533958"><ele>384.5</ele><time>2026-03-30T15:06:08Z</time></trkpt><trkpt lat="42.00576553210205" lon="-0.7156450680737515"><ele>383.0</ele><time>2026-03-30T15:06:09Z</time></trkpt><trkpt lat="42.005825277629334" lon="-0.7159651189295285"><ele>385.0</ele><time>2026-03-30T15:06:10Z</time></trkpt><trkpt lat="42.005884087737066" lon="-0.7162818263262917"><ele>387.0</ele><time>2026-03-30T15:06:11Z</time></trkpt><trkpt lat="42.0059416052199" lon="-0.7165909255150946"><ele>387.0</ele><time>2026-03-30T15:06:12Z</time></trkpt><trkpt lat="42.00600068183792" lon="-0.7169026631015546"><ele>387.0</ele><time>2026-03-30T15:06:13Z</time></trkpt><trkpt lat="42.00605094711097" lon="-0.7171967271985784"><ele>387.0</ele><time>2026-03-30T15:06:14Z</time></trkpt><trkpt lat="42.00610367637328" lon="-0.7174891497587002"><ele>387.0</ele><time>2026-03-30T15:06:15Z</time></trkpt><trkpt lat="42.006151691337166" lon="-0.717776217356621"><ele>387.0</ele><time>2026-03-30T15:06:16Z</time></trkpt><trkpt lat="42.006202151297465" lon="-0.7180620140952149"><ele>386.66666666666663</ele><time>2026-03-30T15:06:17Z</time></trkpt><trkpt lat="42.006252779551765" lon="-0.7183515573348822"><ele>386.3333333333333</ele><time>2026-03-30T15:06:18Z</time></trkpt><trkpt lat="42.00630639296215" lon="-0.7186439364613939"><ele>386.0</ele><time>2026-03-30T15:06:19Z</time></trkpt><trkpt lat="42.006360077177725" lon="-0.7189445999979529"><ele>385.5</ele><time>2026-03-30T15:06:20Z</time></trkpt><trkpt lat="42.00641492479166" lon="-0.7192441492248661"><ele>385.0</ele><time>2026-03-30T15:06:21Z</time></trkpt><trkpt lat="42.006472559831266" lon="-0.7195435518230805"><ele>384.0</ele><time>2026-03-30T15:06:22Z</time></trkpt><trkpt lat="42.00653430528651" lon="-0.719838860233496"><ele>383.0</ele><time>2026-03-30T15:06:23Z</time></trkpt><trkpt lat="42.00659706912498" lon="-0.7201326619708912"><ele>384.5</ele><time>2026-03-30T15:06:24Z</time></trkpt><trkpt lat="42.00666383816983" lon="-0.720430186288708"><ele>386.0</ele><time>2026-03-30T15:06:25Z</time></trkpt><trkpt lat="42.00673450618313" lon="-0.7207331464146864"><ele>386.0</ele><time>2026-03-30T15:06:26Z</time></trkpt><trkpt lat="42.00681042389694" lon="-0.7210337329541362"><ele>386.0</ele><time>2026-03-30T15:06:27Z</time></trkpt><trkpt lat="42.006890182994404" lon="-0.7213352365838538"><ele>385.5</ele><time>2026-03-30T15:06:28Z</time></trkpt><trkpt lat="42.006972509791964" lon="-0.7216330181154264"><ele>385.0</ele><time>2026-03-30T15:06:29Z</time></trkpt><trkpt lat="42.00705201875711" lon="-0.7219313467712897"><ele>384.0</ele><time>2026-03-30T15:06:30Z</time></trkpt><trkpt lat="42.00713280210285" lon="-0.722234357075964"><ele>383.0</ele><time>2026-03-30T15:06:31Z</time></trkpt><trkpt lat="42.00721200372422" lon="-0.722538546981108"><ele>382.5</ele><time>2026-03-30T15:06:32Z</time></trkpt><trkpt lat="42.00729214919115" lon="-0.7228467175215152"><ele>382.0</ele><time>2026-03-30T15:06:33Z</time></trkpt><trkpt lat="42.00737281766294" lon="-0.7231583663713801"><ele>382.0</ele><time>2026-03-30T15:06:34Z</time></trkpt><trkpt lat="42.0074542265008" lon="-0.72347665111432"><ele>382.0</ele><time>2026-03-30T15:06:35Z</time></trkpt><trkpt lat="42.00753235948571" lon="-0.7237993891084606"><ele>381.5</ele><time>2026-03-30T15:06:36Z</time></trkpt><trkpt lat="42.00760858422506" lon="-0.7241224343344523"><ele>381.0</ele><time>2026-03-30T15:06:37Z</time></trkpt><trkpt lat="42.0076808580881" lon="-0.7244465733473543"><ele>381.0</ele><time>2026-03-30T15:06:38Z</time></trkpt><trkpt lat="42.007751068020916" lon="-0.7247673097233966"><ele>381.0</ele><time>2026-03-30T15:06:39Z</time></trkpt><trkpt lat="42.0078152771179" lon="-0.7250864654862226"><ele>380.5</ele><time>2026-03-30T15:06:40Z</time></trkpt><trkpt lat="42.00787674712268" lon="-0.7254111585413668"><ele>380.0</ele><time>2026-03-30T15:06:41Z</time></trkpt><trkpt lat="42.00792975192331" lon="-0.7257259786907657"><ele>380.0</ele><time>2026-03-30T15:06:42Z</time></trkpt><trkpt lat="42.00797853681778" lon="-0.7260258200483648"><ele>380.0</ele><time>2026-03-30T15:06:43Z</time></trkpt><trkpt lat="42.00801830372836" lon="-0.7263117732040707"><ele>380.0</ele><time>2026-03-30T15:06:44Z</time></trkpt><trkpt lat="42.0080522224854" lon="-0.7265916690912975"><ele>380.33333333333337</ele><time>2026-03-30T15:06:45Z</time></trkpt><trkpt lat="42.00808477297433" lon="-0.7268627226816088"><ele>380.6666666666667</ele><time>2026-03-30T15:06:46Z</time></trkpt><trkpt lat="42.00811533632447" lon="-0.727141746977987"><ele>381.0</ele><time>2026-03-30T15:06:47Z</time></trkpt><trkpt lat="42.008140902480996" lon="-0.72742574996318"><ele>379.0</ele><time>2026-03-30T15:06:48Z</time></trkpt><trkpt lat="42.008175916393" lon="-0.7277383170573332"><ele>377.0</ele><time>2026-03-30T15:06:49Z</time></trkpt><trkpt lat="42.00820961041422" lon="-0.7280622204574302"><ele>377.0</ele><time>2026-03-30T15:06:50Z</time></trkpt><trkpt lat="42.0082427269829" lon="-0.7283959039159791"><ele>377.0</ele><time>2026-03-30T15:06:51Z</time></trkpt><trkpt lat="42.008277348575184" lon="-0.7287368138904388"><ele>377.0</ele><time>2026-03-30T15:06:52Z</time></trkpt><trkpt lat="42.008312864879116" lon="-0.7290754251286887"><ele>377.0</ele><time>2026-03-30T15:06:53Z</time></trkpt><trkpt lat="42.00835584469506" lon="-0.7294106626618697"><ele>375.5</ele><time>2026-03-30T15:06:54Z</time></trkpt><trkpt lat="42.00840430737252" lon="-0.7297480630131247"><ele>374.0</ele><time>2026-03-30T15:06:55Z</time></trkpt><trkpt lat="42.0084400953465" lon="-0.7300871422390471"><ele>373.0</ele><time>2026-03-30T15:06:56Z</time></trkpt><trkpt lat="42.008469327873506" lon="-0.7304230042621019"><ele>372.0</ele><time>2026-03-30T15:06:57Z</time></trkpt><trkpt lat="42.00850224777983" lon="-0.7307364069688937"><ele>372.0</ele><time>2026-03-30T15:06:58Z</time></trkpt><trkpt lat="42.008537019317735" lon="-0.7310344411157748"><ele>372.0</ele><time>2026-03-30T15:06:59Z</time></trkpt><trkpt lat="42.00857347768423" lon="-0.7313487056800139"><ele>372.0</ele><time>2026-03-30T15:07:00Z</time></trkpt><trkpt lat="42.00860842240525" lon="-0.7316661882259421"><ele>372.0</ele><time>2026-03-30T15:07:01Z</time></trkpt><trkpt lat="42.00864465605326" lon="-0.7319809671555167"><ele>371.0</ele><time>2026-03-30T15:07:02Z</time></trkpt><trkpt lat="42.00868202365297" lon="-0.7322899688052525"><ele>370.0</ele><time>2026-03-30T15:07:03Z</time></trkpt><trkpt lat="42.00872094159075" lon="-0.7326004514546871"><ele>369.0</ele><time>2026-03-30T15:07:04Z</time></trkpt><trkpt lat="42.008756608005115" lon="-0.7329164455122597"><ele>368.0</ele><time>2026-03-30T15:07:05Z</time></trkpt><trkpt lat="42.008789901643034" lon="-0.7332351377578931"><ele>368.0</ele><time>2026-03-30T15:07:06Z</time></trkpt><trkpt lat="42.00882656001406" lon="-0.7335554270826707"><ele>368.0</ele><time>2026-03-30T15:07:07Z</time></trkpt><trkpt lat="42.00886595147933" lon="-0.7338860356030392"><ele>368.0</ele><time>2026-03-30T15:07:08Z</time></trkpt><trkpt lat="42.00890327911216" lon="-0.7342093160492097"><ele>368.0</ele><time>2026-03-30T15:07:09Z</time></trkpt><trkpt lat="42.008939364718614" lon="-0.7345388614727734"><ele>367.5</ele><time>2026-03-30T15:07:10Z</time></trkpt><trkpt lat="42.00897191897769" lon="-0.73485939206498"><ele>367.0</ele><time>2026-03-30T15:07:11Z</time></trkpt><trkpt lat="42.0090088049795" lon="-0.7351798728001493"><ele>366.5</ele><time>2026-03-30T15:07:12Z</time></trkpt><trkpt lat="42.00904693998268" lon="-0.7355067122919744"><ele>366.0</ele><time>2026-03-30T15:07:13Z</time></trkpt><trkpt lat="42.00908204581351" lon="-0.7358358990195336"><ele>365.0</ele><time>2026-03-30T15:07:14Z</time></trkpt><trkpt lat="42.00911147567737" lon="-0.736150130196316"><ele>364.0</ele><time>2026-03-30T15:07:15Z</time></trkpt><trkpt lat="42.009149907614216" lon="-0.7364685831198595"><ele>364.0</ele><time>2026-03-30T15:07:16Z</time></trkpt><trkpt lat="42.00919392357738" lon="-0.7367860909439438"><ele>364.0</ele><time>2026-03-30T15:07:17Z</time></trkpt><trkpt lat="42.00922891558802" lon="-0.737110362063032"><ele>363.5</ele><time>2026-03-30T15:07:18Z</time></trkpt><trkpt lat="42.00926176652308" lon="-0.7374267060035083"><ele>363.0</ele><time>2026-03-30T15:07:19Z</time></trkpt><trkpt lat="42.00929968537773" lon="-0.7377459983123602"><ele>362.0</ele><time>2026-03-30T15:07:20Z</time></trkpt><trkpt lat="42.00933629977515" lon="-0.7380574568079897"><ele>361.0</ele><time>2026-03-30T15:07:21Z</time></trkpt><trkpt lat="42.009371357476546" lon="-0.738372397451891"><ele>360.0</ele><time>2026-03-30T15:07:22Z</time></trkpt><trkpt lat="42.009405716959925" lon="-0.7386949474551335"><ele>359.0</ele><time>2026-03-30T15:07:23Z</time></trkpt><trkpt lat="42.00944268862161" lon="-0.739012058737975"><ele>359.0</ele><time>2026-03-30T15:07:24Z</time></trkpt><trkpt lat="42.009482542407206" lon="-0.7393218883449575"><ele>359.0</ele><time>2026-03-30T15:07:25Z</time></trkpt><trkpt lat="42.00952107812549" lon="-0.7396252157278824"><ele>358.5</ele><time>2026-03-30T15:07:26Z</time></trkpt><trkpt lat="42.00956044175501" lon="-0.7399413500239644"><ele>358.0</ele><time>2026-03-30T15:07:27Z</time></trkpt><trkpt lat="42.00959984888116" lon="-0.7402478659810827"><ele>357.5</ele><time>2026-03-30T15:07:28Z</time></trkpt><trkpt lat="42.00964148388606" lon="-0.7405604220798007"><ele>357.0</ele><time>2026-03-30T15:07:29Z</time></trkpt><trkpt lat="42.00968203118713" lon="-0.7408621799142905"><ele>356.5</ele><time>2026-03-30T15:07:30Z</time></trkpt><trkpt lat="42.00971552796454" lon="-0.7411541583074558"><ele>356.0</ele><time>2026-03-30T15:07:31Z</time></trkpt><trkpt lat="42.00974990101104" lon="-0.7414634947817547"><ele>356.0</ele><time>2026-03-30T15:07:32Z</time></trkpt><trkpt lat="42.009788385167894" lon="-0.741772951978695"><ele>356.0</ele><time>2026-03-30T15:07:33Z</time></trkpt><trkpt lat="42.00982335553152" lon="-0.7420594064814057"><ele>356.0</ele><time>2026-03-30T15:07:34Z</time></trkpt><trkpt lat="42.00985957858511" lon="-0.7423599257386058"><ele>356.5</ele><time>2026-03-30T15:07:35Z</time></trkpt><trkpt lat="42.009889136527185" lon="-0.7426549758106523"><ele>357.0</ele><time>2026-03-30T15:07:36Z</time></trkpt><trkpt lat="42.00991141886051" lon="-0.7429649659636842"><ele>357.0</ele><time>2026-03-30T15:07:37Z</time></trkpt><trkpt lat="42.009934958700086" lon="-0.7432629015508853"><ele>357.0</ele><time>2026-03-30T15:07:38Z</time></trkpt><trkpt lat="42.00997052768726" lon="-0.7435673971614788"><ele>355.5</ele><time>2026-03-30T15:07:39Z</time></trkpt><trkpt lat="42.01000549463416" lon="-0.7438689082945957"><ele>354.0</ele><time>2026-03-30T15:07:40Z</time></trkpt><trkpt lat="42.01004170586317" lon="-0.7441795435548768"><ele>354.0</ele><time>2026-03-30T15:07:41Z</time></trkpt><trkpt lat="42.010078960400016" lon="-0.7444989201066643"><ele>354.0</ele><time>2026-03-30T15:07:42Z</time></trkpt><trkpt lat="42.010113712390634" lon="-0.7448095557016667"><ele>354.0</ele><time>2026-03-30T15:07:43Z</time></trkpt><trkpt lat="42.01014751721655" lon="-0.7451167124420733"><ele>354.0</ele><time>2026-03-30T15:07:44Z</time></trkpt><trkpt lat="42.01018151285505" lon="-0.7454285964782261"><ele>354.0</ele><time>2026-03-30T15:07:45Z</time></trkpt><trkpt lat="42.01021912212566" lon="-0.7457355809763939"><ele>354.0</ele><time>2026-03-30T15:07:46Z</time></trkpt><trkpt lat="42.01025689574335" lon="-0.7460368516305713"><ele>353.0</ele><time>2026-03-30T15:07:47Z</time></trkpt><trkpt lat="42.010294598790765" lon="-0.746340337052873"><ele>352.0</ele><time>2026-03-30T15:07:48Z</time></trkpt><trkpt lat="42.010329484959904" lon="-0.746646521404119"><ele>351.66666666666663</ele><time>2026-03-30T15:07:49Z</time></trkpt><trkpt lat="42.010356437887545" lon="-0.7469306719008602"><ele>351.3333333333333</ele><time>2026-03-30T15:07:50Z</time></trkpt><trkpt lat="42.01039090992754" lon="-0.7472291233428815"><ele>351.0</ele><time>2026-03-30T15:07:51Z</time></trkpt><trkpt lat="42.010427925936575" lon="-0.7475361379621602"><ele>350.5</ele><time>2026-03-30T15:07:52Z</time></trkpt><trkpt lat="42.01046111379781" lon="-0.7478403247638323"><ele>350.0</ele><time>2026-03-30T15:07:53Z</time></trkpt><trkpt lat="42.01049346425154" lon="-0.7481430310050636"><ele>350.0</ele><time>2026-03-30T15:07:54Z</time></trkpt><trkpt lat="42.010530303623504" lon="-0.7484554158217332"><ele>350.0</ele><time>2026-03-30T15:07:55Z</time></trkpt><trkpt lat="42.01056593435621" lon="-0.7487619203071559"><ele>350.5</ele><time>2026-03-30T15:07:56Z</time></trkpt><trkpt lat="42.010603769138164" lon="-0.749071948436928"><ele>351.0</ele><time>2026-03-30T15:07:57Z</time></trkpt><trkpt lat="42.01063880120082" lon="-0.7493826885149001"><ele>350.0</ele><time>2026-03-30T15:07:58Z</time></trkpt><trkpt lat="42.010670074891685" lon="-0.7496825163953325"><ele>349.0</ele><time>2026-03-30T15:07:59Z</time></trkpt><trkpt lat="42.01070897386482" lon="-0.7500010371879802"><ele>348.0</ele><time>2026-03-30T15:08:00Z</time></trkpt><trkpt lat="42.01074197150162" lon="-0.750305156036112"><ele>347.0</ele><time>2026-03-30T15:08:01Z</time></trkpt><trkpt lat="42.01078216338026" lon="-0.7506367353307701"><ele>347.0</ele><time>2026-03-30T15:08:02Z</time></trkpt><trkpt lat="42.010815773913635" lon="-0.7509481194114551"><ele>347.0</ele><time>2026-03-30T15:08:03Z</time></trkpt><trkpt lat="42.01085171768074" lon="-0.7512700686680988"><ele>347.5</ele><time>2026-03-30T15:08:04Z</time></trkpt><trkpt lat="42.0108920099546" lon="-0.7515849918336619"><ele>348.0</ele><time>2026-03-30T15:08:05Z</time></trkpt><trkpt lat="42.01092978688814" lon="-0.7518844217672513"><ele>348.0</ele><time>2026-03-30T15:08:06Z</time></trkpt><trkpt lat="42.01096271486632" lon="-0.7522009234176518"><ele>348.0</ele><time>2026-03-30T15:08:07Z</time></trkpt><trkpt lat="42.010993541727196" lon="-0.752507262611823"><ele>348.5</ele><time>2026-03-30T15:08:08Z</time></trkpt><trkpt lat="42.01102918409459" lon="-0.7528030853755625"><ele>349.0</ele><time>2026-03-30T15:08:09Z</time></trkpt><trkpt lat="42.01106718933798" lon="-0.7531053815175547"><ele>349.0</ele><time>2026-03-30T15:08:10Z</time></trkpt><trkpt lat="42.01110191757732" lon="-0.7534152101636301"><ele>349.0</ele><time>2026-03-30T15:08:11Z</time></trkpt><trkpt lat="42.01112718872278" lon="-0.7537081290285181"><ele>348.66666666666663</ele><time>2026-03-30T15:08:12Z</time></trkpt><trkpt lat="42.01113250494974" lon="-0.7539940661477458"><ele>348.3333333333333</ele><time>2026-03-30T15:08:13Z</time></trkpt><trkpt lat="42.01111558011789" lon="-0.7542689497488487"><ele>348.0</ele><time>2026-03-30T15:08:14Z</time></trkpt><trkpt lat="42.01108124677355" lon="-0.7545500910282402"><ele>346.6666666666667</ele><time>2026-03-30T15:08:15Z</time></trkpt><trkpt lat="42.01102684487043" lon="-0.7548210126214685"><ele>345.33333333333337</ele><time>2026-03-30T15:08:16Z</time></trkpt><trkpt lat="42.01094511738148" lon="-0.7550884802387945"><ele>344.0</ele><time>2026-03-30T15:08:17Z</time></trkpt><trkpt lat="42.010828825744426" lon="-0.755360786975845"><ele>344.5</ele><time>2026-03-30T15:08:18Z</time></trkpt><trkpt lat="42.01069622331039" lon="-0.7556359051295307"><ele>345.0</ele><time>2026-03-30T15:08:19Z</time></trkpt><trkpt lat="42.01056631980013" lon="-0.7558830629309837"><ele>344.6666666666667</ele><time>2026-03-30T15:08:20Z</time></trkpt><trkpt lat="42.0104401089596" lon="-0.7561009802557931"><ele>344.33333333333337</ele><time>2026-03-30T15:08:21Z</time></trkpt><trkpt lat="42.01031940391006" lon="-0.7563090373847039"><ele>344.0</ele><time>2026-03-30T15:08:22Z</time></trkpt><trkpt lat="42.01020820020671" lon="-0.756528461280281"><ele>344.0</ele><time>2026-03-30T15:08:23Z</time></trkpt><trkpt lat="42.010109571755955" lon="-0.7567228578767023"><ele>344.0</ele><time>2026-03-30T15:08:24Z</time></trkpt><trkpt lat="42.010019805845076" lon="-0.7569075650299779"><ele>344.0</ele><time>2026-03-30T15:08:25Z</time></trkpt><trkpt lat="42.00991967950885" lon="-0.757094838595714"><ele>344.33333333333337</ele><time>2026-03-30T15:08:26Z</time></trkpt><trkpt lat="42.00982207769738" lon="-0.757267319046364"><ele>344.6666666666667</ele><time>2026-03-30T15:08:27Z</time></trkpt><trkpt lat="42.00972563186549" lon="-0.7574417765408403"><ele>345.0</ele><time>2026-03-30T15:08:28Z</time></trkpt><trkpt lat="42.00962895687495" lon="-0.7576254724064853"><ele>345.0</ele><time>2026-03-30T15:08:29Z</time></trkpt><trkpt lat="42.00953167187804" lon="-0.7578104746333463"><ele>345.0</ele><time>2026-03-30T15:08:30Z</time></trkpt><trkpt lat="42.00942874490416" lon="-0.7579984139352995"><ele>345.0</ele><time>2026-03-30T15:08:31Z</time></trkpt><trkpt lat="42.00932850259909" lon="-0.7581860960240872"><ele>345.0</ele><time>2026-03-30T15:08:32Z</time></trkpt><trkpt lat="42.009232726542294" lon="-0.7583820879773764"><ele>345.0</ele><time>2026-03-30T15:08:33Z</time></trkpt><trkpt lat="42.00913356625482" lon="-0.7585706446384125"><ele>345.0</ele><time>2026-03-30T15:08:34Z</time></trkpt><trkpt lat="42.00903179561705" lon="-0.7587554077530789"><ele>345.0</ele><time>2026-03-30T15:08:35Z</time></trkpt><trkpt lat="42.0089347601909" lon="-0.7589456086147542"><ele>345.0</ele><time>2026-03-30T15:08:36Z</time></trkpt><trkpt lat="42.008848914313994" lon="-0.7591255881398615"><ele>345.0</ele><time>2026-03-30T15:08:37Z</time></trkpt><trkpt lat="42.00876474962482" lon="-0.7592909285776247"><ele>345.0</ele><time>2026-03-30T15:08:38Z</time></trkpt><trkpt lat="42.0086850398048" lon="-0.7594427710296872"><ele>345.0</ele><time>2026-03-30T15:08:39Z</time></trkpt><trkpt lat="42.00861463695615" lon="-0.7595947681149362"><ele>345.0</ele><time>2026-03-30T15:08:40Z</time></trkpt><trkpt lat="42.00855429597654" lon="-0.759762623463865"><ele>345.0</ele><time>2026-03-30T15:08:41Z</time></trkpt><trkpt lat="42.00852000771467" lon="-0.7599351434482364"><ele>345.0</ele><time>2026-03-30T15:08:42Z</time></trkpt><trkpt lat="42.00851713428127" lon="-0.7601023883202415"><ele>345.0</ele><time>2026-03-30T15:08:43Z</time></trkpt><trkpt lat="42.008524881980286" lon="-0.7602656299361015"><ele>345.0</ele><time>2026-03-30T15:08:44Z</time></trkpt><trkpt lat="42.008526650334986" lon="-0.7604086620378184"><ele>345.0</ele><time>2026-03-30T15:08:45Z</time></trkpt><trkpt lat="42.008526307790476" lon="-0.7605433808400314"><ele>345.0</ele><time>2026-03-30T15:08:46Z</time></trkpt><trkpt lat="42.00852921956763" lon="-0.7606558330286626"><ele>345.0</ele><time>2026-03-30T15:08:47Z</time></trkpt><trkpt lat="42.00853662726056" lon="-0.7607676309204341"><ele>345.0</ele><time>2026-03-30T15:08:48Z</time></trkpt><trkpt lat="42.00854939416745" lon="-0.7608868551206752"><ele>345.0</ele><time>2026-03-30T15:08:49Z</time></trkpt><trkpt lat="42.0085909519461" lon="-0.7610063296869481"><ele>345.0</ele><time>2026-03-30T15:08:50Z</time></trkpt><trkpt lat="42.00866863432861" lon="-0.7611092726649302"><ele>344.0</ele><time>2026-03-30T15:08:51Z</time></trkpt><trkpt lat="42.00876474385407" lon="-0.7611737487740072"><ele>343.0</ele><time>2026-03-30T15:08:52Z</time></trkpt><trkpt lat="42.00887542210728" lon="-0.7612050072264039"><ele>342.0</ele><time>2026-03-30T15:08:53Z</time></trkpt><trkpt lat="42.008982999804395" lon="-0.7612624727484633"><ele>341.0</ele><time>2026-03-30T15:08:54Z</time></trkpt><trkpt lat="42.00909586246763" lon="-0.7613260970703069"><ele>340.25</ele><time>2026-03-30T15:08:55Z</time></trkpt><trkpt lat="42.00920355184471" lon="-0.7614045211097722"><ele>339.5</ele><time>2026-03-30T15:08:56Z</time></trkpt><trkpt lat="42.00930318740966" lon="-0.7615019861581761"><ele>338.75</ele><time>2026-03-30T15:08:57Z</time></trkpt><trkpt lat="42.009401526628785" lon="-0.7616137712233799"><ele>338.0</ele><time>2026-03-30T15:08:58Z</time></trkpt><trkpt lat="42.00950296755286" lon="-0.7617135127507338"><ele>338.0</ele><time>2026-03-30T15:08:59Z</time></trkpt><trkpt lat="42.0095941716743" lon="-0.7618035564111003"><ele>338.0</ele><time>2026-03-30T15:09:00Z</time></trkpt><trkpt lat="42.00969256004742" lon="-0.7618937593982893"><ele>338.0</ele><time>2026-03-30T15:09:01Z</time></trkpt><trkpt lat="42.009788566276875" lon="-0.7619904092238757"><ele>338.0</ele><time>2026-03-30T15:09:02Z</time></trkpt><trkpt lat="42.00988071470808" lon="-0.762077532606719"><ele>336.25</ele><time>2026-03-30T15:09:03Z</time></trkpt><trkpt lat="42.0099751192252" lon="-0.7621703347839143"><ele>334.5</ele><time>2026-03-30T15:09:04Z</time></trkpt><trkpt lat="42.010064269197436" lon="-0.7622532154175488"><ele>332.75</ele><time>2026-03-30T15:09:05Z</time></trkpt><trkpt lat="42.01016539091469" lon="-0.7623208864440696"><ele>331.0</ele><time>2026-03-30T15:09:06Z</time></trkpt><trkpt lat="42.01027799801205" lon="-0.7623593174469789"><ele>330.75</ele><time>2026-03-30T15:09:07Z</time></trkpt><trkpt lat="42.01040378864396" lon="-0.7623590275342556"><ele>330.5</ele><time>2026-03-30T15:09:08Z</time></trkpt><trkpt lat="42.010529580645255" lon="-0.7623397981528799"><ele>330.25</ele><time>2026-03-30T15:09:09Z</time></trkpt><trkpt lat="42.0106546375903" lon="-0.7623028255918608"><ele>330.0</ele><time>2026-03-30T15:09:10Z</time></trkpt><trkpt lat="42.01076851531664" lon="-0.7622824765461399"><ele>329.75</ele><time>2026-03-30T15:09:11Z</time></trkpt><trkpt lat="42.01088539566138" lon="-0.7622664609963046"><ele>329.5</ele><time>2026-03-30T15:09:12Z</time></trkpt><trkpt lat="42.01100213490134" lon="-0.7622389036725727"><ele>329.25</ele><time>2026-03-30T15:09:13Z</time></trkpt><trkpt lat="42.01111783685315" lon="-0.7622190412471163"><ele>329.0</ele><time>2026-03-30T15:09:14Z</time></trkpt><trkpt lat="42.01124219552699" lon="-0.7622026818371992"><ele>329.0</ele><time>2026-03-30T15:09:15Z</time></trkpt><trkpt lat="42.011364993756686" lon="-0.7621845535975899"><ele>329.0</ele><time>2026-03-30T15:09:16Z</time></trkpt><trkpt lat="42.01147896847307" lon="-0.7621695174347058"><ele>329.0</ele><time>2026-03-30T15:09:17Z</time></trkpt><trkpt lat="42.01158000472501" lon="-0.7621508330436205"><ele>329.0</ele><time>2026-03-30T15:09:18Z</time></trkpt><trkpt lat="42.01167735104976" lon="-0.762135510425045"><ele>329.0</ele><time>2026-03-30T15:09:19Z</time></trkpt><trkpt lat="42.01177739329553" lon="-0.7621236491591837"><ele>329.0</ele><time>2026-03-30T15:09:20Z</time></trkpt><trkpt lat="42.01188160699495" lon="-0.7621506624253537"><ele>329.0</ele><time>2026-03-30T15:09:21Z</time></trkpt><trkpt lat="42.01198008612691" lon="-0.7622369308178569"><ele>329.0</ele><time>2026-03-30T15:09:22Z</time></trkpt><trkpt lat="42.01206650549411" lon="-0.7623570027823571"><ele>329.0</ele><time>2026-03-30T15:09:23Z</time></trkpt><trkpt lat="42.012153026117154" lon="-0.7625223636255821"><ele>329.0</ele><time>2026-03-30T15:09:24Z</time></trkpt><trkpt lat="42.012250384056685" lon="-0.7626887251977972"><ele>329.0</ele><time>2026-03-30T15:09:25Z</time></trkpt><trkpt lat="42.012351008464286" lon="-0.762848776598189"><ele>329.0</ele><time>2026-03-30T15:09:26Z</time></trkpt><trkpt lat="42.0124524952856" lon="-0.7630059590764121"><ele>327.6666666666667</ele><time>2026-03-30T15:09:27Z</time></trkpt><trkpt lat="42.01255353672075" lon="-0.7631639786911757"><ele>326.3333333333333</ele><time>2026-03-30T15:09:28Z</time></trkpt><trkpt lat="42.01265683023639" lon="-0.7633349742146653"><ele>325.0</ele><time>2026-03-30T15:09:29Z</time></trkpt><trkpt lat="42.01276482282365" lon="-0.763514313810382"><ele>324.66666666666663</ele><time>2026-03-30T15:09:30Z</time></trkpt><trkpt lat="42.01288618769861" lon="-0.7636989125174767"><ele>324.3333333333333</ele><time>2026-03-30T15:09:31Z</time></trkpt><trkpt lat="42.013006310486674" lon="-0.7638800683442651"><ele>324.0</ele><time>2026-03-30T15:09:32Z</time></trkpt><trkpt lat="42.01312761952218" lon="-0.7640765832304617"><ele>324.0</ele><time>2026-03-30T15:09:33Z</time></trkpt><trkpt lat="42.01324663492586" lon="-0.7642771563321313"><ele>324.0</ele><time>2026-03-30T15:09:34Z</time></trkpt><trkpt lat="42.01336921791105" lon="-0.764470666195678"><ele>324.0</ele><time>2026-03-30T15:09:35Z</time></trkpt><trkpt lat="42.01348073704972" lon="-0.7646648054311638"><ele>323.6666666666667</ele><time>2026-03-30T15:09:36Z</time></trkpt><trkpt lat="42.013575258240074" lon="-0.7648724266573018"><ele>323.33333333333337</ele><time>2026-03-30T15:09:37Z</time></trkpt><trkpt lat="42.01365263214707" lon="-0.765090286506597"><ele>323.0</ele><time>2026-03-30T15:09:38Z</time></trkpt><trkpt lat="42.01370940148228" lon="-0.7653208273990073"><ele>322.33333333333337</ele><time>2026-03-30T15:09:39Z</time></trkpt><trkpt lat="42.01375333182012" lon="-0.7655507605863798"><ele>321.6666666666667</ele><time>2026-03-30T15:09:40Z</time></trkpt><trkpt lat="42.013796332302356" lon="-0.7657756557806868"><ele>321.0</ele><time>2026-03-30T15:09:41Z</time></trkpt><trkpt lat="42.01383926628034" lon="-0.7660201929413549"><ele>320.0</ele><time>2026-03-30T15:09:42Z</time></trkpt><trkpt lat="42.01388460175123" lon="-0.766248063472548"><ele>319.0</ele><time>2026-03-30T15:09:43Z</time></trkpt><trkpt lat="42.01392950237321" lon="-0.7664770105580556"><ele>318.0</ele><time>2026-03-30T15:09:44Z</time></trkpt><trkpt lat="42.01397823902051" lon="-0.7667152756429317"><ele>318.3333333333333</ele><time>2026-03-30T15:09:45Z</time></trkpt><trkpt lat="42.014030594462135" lon="-0.7669605039042484"><ele>318.66666666666663</ele><time>2026-03-30T15:09:46Z</time></trkpt><trkpt lat="42.01408318104443" lon="-0.7671980837210508"><ele>319.0</ele><time>2026-03-30T15:09:47Z</time></trkpt><trkpt lat="42.01413301093432" lon="-0.7674351915383597"><ele>319.66666666666663</ele><time>2026-03-30T15:09:48Z</time></trkpt><trkpt lat="42.014181611653726" lon="-0.7676719639478093"><ele>320.3333333333333</ele><time>2026-03-30T15:09:49Z</time></trkpt><trkpt lat="42.014234225721296" lon="-0.7679201460533825"><ele>321.0</ele><time>2026-03-30T15:09:50Z</time></trkpt><trkpt lat="42.01428266691479" lon="-0.7681728519515569"><ele>321.0</ele><time>2026-03-30T15:09:51Z</time></trkpt><trkpt lat="42.014316495661134" lon="-0.7684274561997413"><ele>321.0</ele><time>2026-03-30T15:09:52Z</time></trkpt><trkpt lat="42.01434394975523" lon="-0.7686842134565471"><ele>321.0</ele><time>2026-03-30T15:09:53Z</time></trkpt><trkpt lat="42.01436567191383" lon="-0.768947894766097"><ele>320.6666666666667</ele><time>2026-03-30T15:09:54Z</time></trkpt><trkpt lat="42.01437372031813" lon="-0.7692027962215362"><ele>320.33333333333337</ele><time>2026-03-30T15:09:55Z</time></trkpt><trkpt lat="42.01435922202713" lon="-0.7694665521031161"><ele>320.0</ele><time>2026-03-30T15:09:56Z</time></trkpt><trkpt lat="42.01434286571026" lon="-0.7697305041104988"><ele>320.0</ele><time>2026-03-30T15:09:57Z</time></trkpt><trkpt lat="42.0143394786712" lon="-0.7700017184674312"><ele>320.0</ele><time>2026-03-30T15:09:58Z</time></trkpt><trkpt lat="42.014309360189664" lon="-0.7702837441229117"><ele>320.0</ele><time>2026-03-30T15:09:59Z</time></trkpt><trkpt lat="42.014261394130145" lon="-0.7705646574792685"><ele>320.33333333333337</ele><time>2026-03-30T15:10:00Z</time></trkpt><trkpt lat="42.0142125469826" lon="-0.7708132515166739"><ele>320.6666666666667</ele><time>2026-03-30T15:10:01Z</time></trkpt><trkpt lat="42.014161541361226" lon="-0.771036124472952"><ele>321.0</ele><time>2026-03-30T15:10:02Z</time></trkpt><trkpt lat="42.01410723290094" lon="-0.7712398145410827"><ele>321.0</ele><time>2026-03-30T15:10:03Z</time></trkpt><trkpt lat="42.01405153301362" lon="-0.7714420664106175"><ele>321.0</ele><time>2026-03-30T15:10:04Z</time></trkpt><trkpt lat="42.01399775545847" lon="-0.7716632876355171"><ele>321.0</ele><time>2026-03-30T15:10:05Z</time></trkpt><trkpt lat="42.01393719318623" lon="-0.7718949316515544"><ele>321.3333333333333</ele><time>2026-03-30T15:10:06Z</time></trkpt><trkpt lat="42.01386329920106" lon="-0.7721236083131232"><ele>321.66666666666663</ele><time>2026-03-30T15:10:07Z</time></trkpt><trkpt lat="42.01380754239515" lon="-0.7723797161427365"><ele>322.0</ele><time>2026-03-30T15:10:08Z</time></trkpt><trkpt lat="42.01373845370946" lon="-0.7726473170143783"><ele>323.5</ele><time>2026-03-30T15:10:09Z</time></trkpt><trkpt lat="42.013664526327986" lon="-0.772933659547262"><ele>325.0</ele><time>2026-03-30T15:10:10Z</time></trkpt><trkpt lat="42.01359050833179" lon="-0.7732201653952584"><ele>325.0</ele><time>2026-03-30T15:10:11Z</time></trkpt><trkpt lat="42.01352552647063" lon="-0.773507045316898"><ele>325.0</ele><time>2026-03-30T15:10:12Z</time></trkpt><trkpt lat="42.013462856766736" lon="-0.7738053695160604"><ele>326.0</ele><time>2026-03-30T15:10:13Z</time></trkpt><trkpt lat="42.01339054698716" lon="-0.7740951780145413"><ele>327.0</ele><time>2026-03-30T15:10:14Z</time></trkpt><trkpt lat="42.013315311015674" lon="-0.7743787091570045"><ele>327.0</ele><time>2026-03-30T15:10:15Z</time></trkpt><trkpt lat="42.01324050562272" lon="-0.7746489497451614"><ele>327.0</ele><time>2026-03-30T15:10:16Z</time></trkpt><trkpt lat="42.01316904749539" lon="-0.7749194213547643"><ele>327.0</ele><time>2026-03-30T15:10:17Z</time></trkpt><trkpt lat="42.013099064588516" lon="-0.7751892732132709"><ele>326.3333333333333</ele><time>2026-03-30T15:10:18Z</time></trkpt><trkpt lat="42.01302874351115" lon="-0.7754643897615605"><ele>325.66666666666663</ele><time>2026-03-30T15:10:19Z</time></trkpt><trkpt lat="42.0129541039402" lon="-0.775747354308473"><ele>325.0</ele><time>2026-03-30T15:10:20Z</time></trkpt><trkpt lat="42.01287894121298" lon="-0.7760352845087035"><ele>324.5</ele><time>2026-03-30T15:10:21Z</time></trkpt><trkpt lat="42.01280180813673" lon="-0.7763350166679138"><ele>324.0</ele><time>2026-03-30T15:10:22Z</time></trkpt><trkpt lat="42.012726010092884" lon="-0.7766389593604335"><ele>328.5</ele><time>2026-03-30T15:10:23Z</time></trkpt><trkpt lat="42.01264296992843" lon="-0.7769528157905646"><ele>333.0</ele><time>2026-03-30T15:10:24Z</time></trkpt><trkpt lat="42.012563779727365" lon="-0.7772697318330173"><ele>332.5</ele><time>2026-03-30T15:10:25Z</time></trkpt><trkpt lat="42.01248629385068" lon="-0.7775851761743048"><ele>332.0</ele><time>2026-03-30T15:10:26Z</time></trkpt><trkpt lat="42.01241164003806" lon="-0.7778849390221246"><ele>334.0</ele><time>2026-03-30T15:10:27Z</time></trkpt><trkpt lat="42.01233358420457" lon="-0.7781893094366313"><ele>336.0</ele><time>2026-03-30T15:10:28Z</time></trkpt><trkpt lat="42.012247305541" lon="-0.7784947511156679"><ele>336.0</ele><time>2026-03-30T15:10:29Z</time></trkpt><trkpt lat="42.012168248115174" lon="-0.7788047561402711"><ele>336.0</ele><time>2026-03-30T15:10:30Z</time></trkpt><trkpt lat="42.01209741048635" lon="-0.779112447685621"><ele>335.5</ele><time>2026-03-30T15:10:31Z</time></trkpt><trkpt lat="42.01202162748015" lon="-0.7794234775703485"><ele>335.0</ele><time>2026-03-30T15:10:32Z</time></trkpt><trkpt lat="42.0119422468784" lon="-0.7797228505851409"><ele>335.0</ele><time>2026-03-30T15:10:33Z</time></trkpt><trkpt lat="42.01185778660368" lon="-0.7800291154185982"><ele>335.0</ele><time>2026-03-30T15:10:34Z</time></trkpt><trkpt lat="42.01177671077508" lon="-0.7803274764128408"><ele>336.0</ele><time>2026-03-30T15:10:35Z</time></trkpt><trkpt lat="42.01169957757662" lon="-0.7806205865666426"><ele>337.0</ele><time>2026-03-30T15:10:36Z</time></trkpt><trkpt lat="42.0116263143711" lon="-0.7809107680001551"><ele>337.66666666666663</ele><time>2026-03-30T15:10:37Z</time></trkpt><trkpt lat="42.01156088603304" lon="-0.7811969021019064"><ele>338.3333333333333</ele><time>2026-03-30T15:10:38Z</time></trkpt><trkpt lat="42.01149781689708" lon="-0.7814810547438228"><ele>339.0</ele><time>2026-03-30T15:10:39Z</time></trkpt><trkpt lat="42.011432620378166" lon="-0.7817560372131765"><ele>340.0</ele><time>2026-03-30T15:10:40Z</time></trkpt><trkpt lat="42.0113582949857" lon="-0.7820350025295982"><ele>341.0</ele><time>2026-03-30T15:10:41Z</time></trkpt><trkpt lat="42.01128574150367" lon="-0.7822972142518073"><ele>342.0</ele><time>2026-03-30T15:10:42Z</time></trkpt><trkpt lat="42.011221413582106" lon="-0.7825685435776298"><ele>342.0</ele><time>2026-03-30T15:10:43Z</time></trkpt><trkpt lat="42.01115742311465" lon="-0.7828449170449159"><ele>342.0</ele><time>2026-03-30T15:10:44Z</time></trkpt><trkpt lat="42.011082850783424" lon="-0.7831108242995172"><ele>342.0</ele><time>2026-03-30T15:10:45Z</time></trkpt><trkpt lat="42.011005169291884" lon="-0.783386743340104"><ele>341.6666666666667</ele><time>2026-03-30T15:10:46Z</time></trkpt><trkpt lat="42.01092230305062" lon="-0.7836543587961493"><ele>341.33333333333337</ele><time>2026-03-30T15:10:47Z</time></trkpt><trkpt lat="42.01085588370598" lon="-0.7839299519593103"><ele>341.0</ele><time>2026-03-30T15:10:48Z</time></trkpt><trkpt lat="42.0107793729074" lon="-0.7842117577897048"><ele>342.33333333333337</ele><time>2026-03-30T15:10:49Z</time></trkpt><trkpt lat="42.010714653037425" lon="-0.7844891273559609"><ele>343.6666666666667</ele><time>2026-03-30T15:10:50Z</time></trkpt><trkpt lat="42.01065662544094" lon="-0.7847714249878319"><ele>345.0</ele><time>2026-03-30T15:10:51Z</time></trkpt><trkpt lat="42.010593253879165" lon="-0.7850480650128951"><ele>347.3333333333333</ele><time>2026-03-30T15:10:52Z</time></trkpt><trkpt lat="42.010533422346384" lon="-0.7853260015640008"><ele>349.66666666666663</ele><time>2026-03-30T15:10:53Z</time></trkpt><trkpt lat="42.01048380723858" lon="-0.7856107638632406"><ele>352.0</ele><time>2026-03-30T15:10:54Z</time></trkpt><trkpt lat="42.01044575800692" lon="-0.7859032200690682"><ele>351.66666666666663</ele><time>2026-03-30T15:10:55Z</time></trkpt><trkpt lat="42.01041517457601" lon="-0.7861963079838015"><ele>351.3333333333333</ele><time>2026-03-30T15:10:56Z</time></trkpt><trkpt lat="42.010393244632034" lon="-0.7864964697127564"><ele>351.0</ele><time>2026-03-30T15:10:57Z</time></trkpt><trkpt lat="42.010393469458556" lon="-0.7868053588849963"><ele>352.0</ele><time>2026-03-30T15:10:58Z</time></trkpt><trkpt lat="42.010405021540095" lon="-0.7871043032199078"><ele>353.0</ele><time>2026-03-30T15:10:59Z</time></trkpt><trkpt lat="42.01042586954891" lon="-0.7874066528247704"><ele>354.0</ele><time>2026-03-30T15:11:00Z</time></trkpt><trkpt lat="42.01045929022266" lon="-0.7877010536959854"><ele>354.0</ele><time>2026-03-30T15:11:01Z</time></trkpt><trkpt lat="42.01051019600719" lon="-0.7880043684088218"><ele>354.0</ele><time>2026-03-30T15:11:02Z</time></trkpt><trkpt lat="42.01057161166944" lon="-0.7883053574423033"><ele>357.5</ele><time>2026-03-30T15:11:03Z</time></trkpt><trkpt lat="42.010643779180526" lon="-0.7885969261604272"><ele>361.0</ele><time>2026-03-30T15:11:04Z</time></trkpt><trkpt lat="42.01072735307383" lon="-0.788877517698959"><ele>361.0</ele><time>2026-03-30T15:11:05Z</time></trkpt><trkpt lat="42.01081893235992" lon="-0.7891477434182177"><ele>361.0</ele><time>2026-03-30T15:11:06Z</time></trkpt><trkpt lat="42.0109206248901" lon="-0.7894260830632419"><ele>362.0</ele><time>2026-03-30T15:11:07Z</time></trkpt><trkpt lat="42.011025738487234" lon="-0.7896964226853341"><ele>363.0</ele><time>2026-03-30T15:11:08Z</time></trkpt><trkpt lat="42.01113803004951" lon="-0.7899575135006921"><ele>365.0</ele><time>2026-03-30T15:11:09Z</time></trkpt><trkpt lat="42.01125917344679" lon="-0.7902119439078965"><ele>367.0</ele><time>2026-03-30T15:11:10Z</time></trkpt><trkpt lat="42.01138169269894" lon="-0.7904681457493639"><ele>367.0</ele><time>2026-03-30T15:11:11Z</time></trkpt><trkpt lat="42.01150356637864" lon="-0.7907264313905521"><ele>367.0</ele><time>2026-03-30T15:11:12Z</time></trkpt><trkpt lat="42.01162696649899" lon="-0.7909860842784708"><ele>367.5</ele><time>2026-03-30T15:11:13Z</time></trkpt><trkpt lat="42.01175337969701" lon="-0.7912579243122712"><ele>368.0</ele><time>2026-03-30T15:11:14Z</time></trkpt><trkpt lat="42.01187676779588" lon="-0.7915256349780403"><ele>368.0</ele><time>2026-03-30T15:11:15Z</time></trkpt><trkpt lat="42.012000096875184" lon="-0.7917910520695819"><ele>368.0</ele><time>2026-03-30T15:11:16Z</time></trkpt><trkpt lat="42.012121616310814" lon="-0.7920565905037007"><ele>369.5</ele><time>2026-03-30T15:11:17Z</time></trkpt><trkpt lat="42.01223866309416" lon="-0.7923241138686345"><ele>371.0</ele><time>2026-03-30T15:11:18Z</time></trkpt><trkpt lat="42.01235631124265" lon="-0.7925947681448622"><ele>373.5</ele><time>2026-03-30T15:11:19Z</time></trkpt><trkpt lat="42.01246672850657" lon="-0.7928602009471578"><ele>376.0</ele><time>2026-03-30T15:11:20Z</time></trkpt><trkpt lat="42.0125674784645" lon="-0.7931314244257147"><ele>376.0</ele><time>2026-03-30T15:11:21Z</time></trkpt><trkpt lat="42.012670877410144" lon="-0.7934120048204751"><ele>376.0</ele><time>2026-03-30T15:11:22Z</time></trkpt><trkpt lat="42.01276950716988" lon="-0.7936924791526953"><ele>376.0</ele><time>2026-03-30T15:11:23Z</time></trkpt><trkpt lat="42.01286152276289" lon="-0.793978364830596"><ele>376.0</ele><time>2026-03-30T15:11:24Z</time></trkpt><trkpt lat="42.01295233205299" lon="-0.7942718010743666"><ele>377.5</ele><time>2026-03-30T15:11:25Z</time></trkpt><trkpt lat="42.01303616857314" lon="-0.7945711231213742"><ele>379.0</ele><time>2026-03-30T15:11:26Z</time></trkpt><trkpt lat="42.013108357708646" lon="-0.7948701225589132"><ele>380.5</ele><time>2026-03-30T15:11:27Z</time></trkpt><trkpt lat="42.0131784157523" lon="-0.7951809234992168"><ele>382.0</ele><time>2026-03-30T15:11:28Z</time></trkpt><trkpt lat="42.013237219208165" lon="-0.7954834594591039"><ele>382.0</ele><time>2026-03-30T15:11:29Z</time></trkpt><trkpt lat="42.01328936565139" lon="-0.7957925142580643"><ele>382.0</ele><time>2026-03-30T15:11:30Z</time></trkpt><trkpt lat="42.01332868414037" lon="-0.796100965450212"><ele>385.0</ele><time>2026-03-30T15:11:31Z</time></trkpt><trkpt lat="42.01337517557812" lon="-0.7964170602733588"><ele>388.0</ele><time>2026-03-30T15:11:32Z</time></trkpt><trkpt lat="42.01341787369368" lon="-0.7967379476708528"><ele>387.0</ele><time>2026-03-30T15:11:33Z</time></trkpt><trkpt lat="42.01344213537285" lon="-0.7970626427244176"><ele>386.0</ele><time>2026-03-30T15:11:34Z</time></trkpt><trkpt lat="42.01345625992938" lon="-0.7973854316432142"><ele>386.0</ele><time>2026-03-30T15:11:35Z</time></trkpt><trkpt lat="42.013465903177256" lon="-0.7977190870607118"><ele>386.0</ele><time>2026-03-30T15:11:36Z</time></trkpt><trkpt lat="42.0134711706162" lon="-0.7980553957352748"><ele>386.0</ele><time>2026-03-30T15:11:37Z</time></trkpt><trkpt lat="42.01346914962151" lon="-0.7983809563553204"><ele>386.0</ele><time>2026-03-30T15:11:38Z</time></trkpt><trkpt lat="42.01346644749328" lon="-0.7987002896905447"><ele>386.0</ele><time>2026-03-30T15:11:39Z</time></trkpt><trkpt lat="42.01345867040526" lon="-0.79902011934488"><ele>386.0</ele><time>2026-03-30T15:11:40Z</time></trkpt><trkpt lat="42.01343209660802" lon="-0.7993461313838278"><ele>387.0</ele><time>2026-03-30T15:11:41Z</time></trkpt><trkpt lat="42.013399209595626" lon="-0.7996697619017813"><ele>388.0</ele><time>2026-03-30T15:11:42Z</time></trkpt><trkpt lat="42.01336003760017" lon="-0.7999959660026469"><ele>388.5</ele><time>2026-03-30T15:11:43Z</time></trkpt><trkpt lat="42.01331403639765" lon="-0.8003118525355032"><ele>389.0</ele><time>2026-03-30T15:11:44Z</time></trkpt><trkpt lat="42.01327428399883" lon="-0.8006348781441155"><ele>389.0</ele><time>2026-03-30T15:11:45Z</time></trkpt><trkpt lat="42.0132260724376" lon="-0.8009517924800379"><ele>389.0</ele><time>2026-03-30T15:11:46Z</time></trkpt><trkpt lat="42.0131728604838" lon="-0.801272879797375"><ele>389.0</ele><time>2026-03-30T15:11:47Z</time></trkpt><trkpt lat="42.01311889580428" lon="-0.801585613242564"><ele>389.0</ele><time>2026-03-30T15:11:48Z</time></trkpt><trkpt lat="42.013064222434565" lon="-0.801897147609918"><ele>389.5</ele><time>2026-03-30T15:11:49Z</time></trkpt><trkpt lat="42.013009401593536" lon="-0.8022069723466577"><ele>390.0</ele><time>2026-03-30T15:11:50Z</time></trkpt><trkpt lat="42.01294973602275" lon="-0.8025320408749591"><ele>389.0</ele><time>2026-03-30T15:11:51Z</time></trkpt><trkpt lat="42.01288531725822" lon="-0.8028678146653028"><ele>388.0</ele><time>2026-03-30T15:11:52Z</time></trkpt><trkpt lat="42.012822746788224" lon="-0.8032035543657905"><ele>387.0</ele><time>2026-03-30T15:11:53Z</time></trkpt><trkpt lat="42.01275671164654" lon="-0.8035441294949675"><ele>386.0</ele><time>2026-03-30T15:11:54Z</time></trkpt><trkpt lat="42.01269208801615" lon="-0.8038668037948619"><ele>386.0</ele><time>2026-03-30T15:11:55Z</time></trkpt><trkpt lat="42.012630299510406" lon="-0.8041957361684373"><ele>386.0</ele><time>2026-03-30T15:11:56Z</time></trkpt><trkpt lat="42.01257157529439" lon="-0.8045178760368265"><ele>386.0</ele><time>2026-03-30T15:11:57Z</time></trkpt><trkpt lat="42.01251005158393" lon="-0.8048399352838794"><ele>386.0</ele><time>2026-03-30T15:11:58Z</time></trkpt><trkpt lat="42.012449617339406" lon="-0.8051538349244"><ele>387.0</ele><time>2026-03-30T15:11:59Z</time></trkpt><trkpt lat="42.01239299918676" lon="-0.8054615195076915"><ele>388.0</ele><time>2026-03-30T15:12:00Z</time></trkpt><trkpt lat="42.01233621146627" lon="-0.805765771017746"><ele>387.5</ele><time>2026-03-30T15:12:01Z</time></trkpt><trkpt lat="42.01227558285424" lon="-0.806072472875523"><ele>387.0</ele><time>2026-03-30T15:12:02Z</time></trkpt><trkpt lat="42.012215492911956" lon="-0.8063847714940386"><ele>387.0</ele><time>2026-03-30T15:12:03Z</time></trkpt><trkpt lat="42.01215626346214" lon="-0.8066843065706123"><ele>387.0</ele><time>2026-03-30T15:12:04Z</time></trkpt><trkpt lat="42.01209470925439" lon="-0.8069919042960442"><ele>388.5</ele><time>2026-03-30T15:12:05Z</time></trkpt><trkpt lat="42.01202991057355" lon="-0.80730376059999"><ele>390.0</ele><time>2026-03-30T15:12:06Z</time></trkpt><trkpt lat="42.011960246309656" lon="-0.8076200728620709"><ele>390.5</ele><time>2026-03-30T15:12:07Z</time></trkpt><trkpt lat="42.01188684421877" lon="-0.8079421922500322"><ele>391.0</ele><time>2026-03-30T15:12:08Z</time></trkpt><trkpt lat="42.01180854817701" lon="-0.8082670229420471"><ele>391.5</ele><time>2026-03-30T15:12:09Z</time></trkpt><trkpt lat="42.01173016720598" lon="-0.8085862978305727"><ele>392.0</ele><time>2026-03-30T15:12:10Z</time></trkpt><trkpt lat="42.011651044165625" lon="-0.8089061477564703"><ele>396.0</ele><time>2026-03-30T15:12:11Z</time></trkpt><trkpt lat="42.01156733020519" lon="-0.8092192549257751"><ele>400.0</ele><time>2026-03-30T15:12:12Z</time></trkpt><trkpt lat="42.01147798399982" lon="-0.8095249711101429"><ele>400.0</ele><time>2026-03-30T15:12:13Z</time></trkpt><trkpt lat="42.011386868723314" lon="-0.8098295278579707"><ele>400.0</ele><time>2026-03-30T15:12:14Z</time></trkpt><trkpt lat="42.01128684059348" lon="-0.8101379912479919"><ele>398.5</ele><time>2026-03-30T15:12:15Z</time></trkpt><trkpt lat="42.01117551307291" lon="-0.8104519155934358"><ele>397.0</ele><time>2026-03-30T15:12:16Z</time></trkpt><trkpt lat="42.01106637010646" lon="-0.8107562229500367"><ele>398.0</ele><time>2026-03-30T15:12:17Z</time></trkpt><trkpt lat="42.01095642314237" lon="-0.8110523416764007"><ele>399.0</ele><time>2026-03-30T15:12:18Z</time></trkpt><trkpt lat="42.01084433870454" lon="-0.8113495560258159"><ele>402.0</ele><time>2026-03-30T15:12:19Z</time></trkpt><trkpt lat="42.01072133297616" lon="-0.8116474921634476"><ele>405.0</ele><time>2026-03-30T15:12:20Z</time></trkpt><trkpt lat="42.01059094990666" lon="-0.8119321999298583"><ele>405.5</ele><time>2026-03-30T15:12:21Z</time></trkpt><trkpt lat="42.010460748646906" lon="-0.8122151638513273"><ele>406.0</ele><time>2026-03-30T15:12:22Z</time></trkpt><trkpt lat="42.01033116134991" lon="-0.812491369831604"><ele>406.5</ele><time>2026-03-30T15:12:23Z</time></trkpt><trkpt lat="42.01020109764906" lon="-0.8127605982131887"><ele>407.0</ele><time>2026-03-30T15:12:24Z</time></trkpt><trkpt lat="42.01007288538428" lon="-0.8130240800501584"><ele>408.5</ele><time>2026-03-30T15:12:25Z</time></trkpt><trkpt lat="42.009926970790595" lon="-0.8132911164348519"><ele>410.0</ele><time>2026-03-30T15:12:26Z</time></trkpt><trkpt lat="42.00978434278445" lon="-0.8135422332545899"><ele>410.0</ele><time>2026-03-30T15:12:27Z</time></trkpt><trkpt lat="42.00963712860105" lon="-0.8137965058949023"><ele>410.0</ele><time>2026-03-30T15:12:28Z</time></trkpt><trkpt lat="42.00948088781462" lon="-0.8140537165428144"><ele>410.0</ele><time>2026-03-30T15:12:29Z</time></trkpt><trkpt lat="42.00931915891932" lon="-0.8143048519835696"><ele>410.0</ele><time>2026-03-30T15:12:30Z</time></trkpt><trkpt lat="42.0091562098656" lon="-0.8145421181877008"><ele>412.5</ele><time>2026-03-30T15:12:31Z</time></trkpt><trkpt lat="42.00899083659501" lon="-0.8147955522022651"><ele>415.0</ele><time>2026-03-30T15:12:32Z</time></trkpt><trkpt lat="42.008827321719664" lon="-0.8150424982434817"><ele>413.5</ele><time>2026-03-30T15:12:33Z</time></trkpt><trkpt lat="42.008660722588644" lon="-0.8152975090395456"><ele>412.0</ele><time>2026-03-30T15:12:34Z</time></trkpt><trkpt lat="42.008493558039056" lon="-0.81553988357653"><ele>414.5</ele><time>2026-03-30T15:12:35Z</time></trkpt><trkpt lat="42.00832536186102" lon="-0.8157728115420186"><ele>417.0</ele><time>2026-03-30T15:12:36Z</time></trkpt><trkpt lat="42.00815543334126" lon="-0.8160041430577878"><ele>417.0</ele><time>2026-03-30T15:12:37Z</time></trkpt><trkpt lat="42.007984113721754" lon="-0.8162443529904228"><ele>417.0</ele><time>2026-03-30T15:12:38Z</time></trkpt><trkpt lat="42.007816442695336" lon="-0.8164869112434006"><ele>417.0</ele><time>2026-03-30T15:12:39Z</time></trkpt><trkpt lat="42.00764734212713" lon="-0.8167270038213641"><ele>417.0</ele><time>2026-03-30T15:12:40Z</time></trkpt><trkpt lat="42.007477477902825" lon="-0.8169509796676324"><ele>419.0</ele><time>2026-03-30T15:12:41Z</time></trkpt><trkpt lat="42.00730508316561" lon="-0.8171794423183283"><ele>421.0</ele><time>2026-03-30T15:12:42Z</time></trkpt><trkpt lat="42.00713590223584" lon="-0.8174189903668079"><ele>424.5</ele><time>2026-03-30T15:12:43Z</time></trkpt><trkpt lat="42.00697307505082" lon="-0.8176623395832755"><ele>428.0</ele><time>2026-03-30T15:12:44Z</time></trkpt><trkpt lat="42.006817142448945" lon="-0.8179144812990887"><ele>428.0</ele><time>2026-03-30T15:12:45Z</time></trkpt><trkpt lat="42.00666553977754" lon="-0.8181863708837261"><ele>428.0</ele><time>2026-03-30T15:12:46Z</time></trkpt><trkpt lat="42.00652123446204" lon="-0.8184638712281364"><ele>432.0</ele><time>2026-03-30T15:12:47Z</time></trkpt><trkpt lat="42.00638914104819" lon="-0.8187411287084113"><ele>436.0</ele><time>2026-03-30T15:12:48Z</time></trkpt><trkpt lat="42.006262077149884" lon="-0.8190233991186824"><ele>436.0</ele><time>2026-03-30T15:12:49Z</time></trkpt><trkpt lat="42.0061445815805" lon="-0.8193167024698378"><ele>436.0</ele><time>2026-03-30T15:12:50Z</time></trkpt><trkpt lat="42.00604279909227" lon="-0.8196192417828735"><ele>436.0</ele><time>2026-03-30T15:12:51Z</time></trkpt><trkpt lat="42.005951632185756" lon="-0.819934734464732"><ele>436.0</ele><time>2026-03-30T15:12:52Z</time></trkpt><trkpt lat="42.0058778890302" lon="-0.8202602561949855"><ele>441.0</ele><time>2026-03-30T15:12:53Z</time></trkpt><trkpt lat="42.00581728349819" lon="-0.8205915259489436"><ele>446.0</ele><time>2026-03-30T15:12:54Z</time></trkpt><trkpt lat="42.00577643558956" lon="-0.8209240079208694"><ele>446.5</ele><time>2026-03-30T15:12:55Z</time></trkpt><trkpt lat="42.005742635060834" lon="-0.821262059583542"><ele>447.0</ele><time>2026-03-30T15:12:56Z</time></trkpt><trkpt lat="42.00572003402798" lon="-0.8215764120685902"><ele>446.0</ele><time>2026-03-30T15:12:57Z</time></trkpt><trkpt lat="42.00571436190361" lon="-0.8219027833329542"><ele>445.0</ele><time>2026-03-30T15:12:58Z</time></trkpt><trkpt lat="42.00571770098541" lon="-0.822223021813709"><ele>445.0</ele><time>2026-03-30T15:12:59Z</time></trkpt><trkpt lat="42.0057312636718" lon="-0.8225543387468762"><ele>445.0</ele><time>2026-03-30T15:13:00Z</time></trkpt><trkpt lat="42.00576022440157" lon="-0.8228795764629955"><ele>443.0</ele><time>2026-03-30T15:13:01Z</time></trkpt><trkpt lat="42.00580606189937" lon="-0.8231953318169655"><ele>441.0</ele><time>2026-03-30T15:13:02Z</time></trkpt><trkpt lat="42.00585527816528" lon="-0.8235014033839623"><ele>441.0</ele><time>2026-03-30T15:13:03Z</time></trkpt><trkpt lat="42.005911656619666" lon="-0.8238109695954408"><ele>441.0</ele><time>2026-03-30T15:13:04Z</time></trkpt><trkpt lat="42.00597051090449" lon="-0.8241133420469786"><ele>442.5</ele><time>2026-03-30T15:13:05Z</time></trkpt><trkpt lat="42.006034661562886" lon="-0.8244194175271712"><ele>444.0</ele><time>2026-03-30T15:13:06Z</time></trkpt><trkpt lat="42.00610000118821" lon="-0.8247251483517513"><ele>444.0</ele><time>2026-03-30T15:13:07Z</time></trkpt><trkpt lat="42.006169027993245" lon="-0.8250294952193371"><ele>444.0</ele><time>2026-03-30T15:13:08Z</time></trkpt><trkpt lat="42.00624222491109" lon="-0.8253387017700078"><ele>445.0</ele><time>2026-03-30T15:13:09Z</time></trkpt><trkpt lat="42.00631722489335" lon="-0.8256475412032527"><ele>446.0</ele><time>2026-03-30T15:13:10Z</time></trkpt><trkpt lat="42.00639183928679" lon="-0.8259529597473022"><ele>446.5</ele><time>2026-03-30T15:13:11Z</time></trkpt><trkpt lat="42.00646096040093" lon="-0.8262570299164952"><ele>447.0</ele><time>2026-03-30T15:13:12Z</time></trkpt><trkpt lat="42.006528405941275" lon="-0.8265581991405568"><ele>447.0</ele><time>2026-03-30T15:13:13Z</time></trkpt><trkpt lat="42.00659634415088" lon="-0.8268500055891539"><ele>447.0</ele><time>2026-03-30T15:13:14Z</time></trkpt><trkpt lat="42.00666467206891" lon="-0.8271478888010927"><ele>447.0</ele><time>2026-03-30T15:13:15Z</time></trkpt><trkpt lat="42.00672814845165" lon="-0.8274411807214489"><ele>447.0</ele><time>2026-03-30T15:13:16Z</time></trkpt><trkpt lat="42.00679442756844" lon="-0.8277415630706587"><ele>446.0</ele><time>2026-03-30T15:13:17Z</time></trkpt><trkpt lat="42.00686730755431" lon="-0.8280415655247844"><ele>445.0</ele><time>2026-03-30T15:13:18Z</time></trkpt><trkpt lat="42.006937316145695" lon="-0.8283363741068163"><ele>445.5</ele><time>2026-03-30T15:13:19Z</time></trkpt><trkpt lat="42.0070071540606" lon="-0.8286402828646078"><ele>446.0</ele><time>2026-03-30T15:13:20Z</time></trkpt><trkpt lat="42.00707159228917" lon="-0.8289471841234548"><ele>446.0</ele><time>2026-03-30T15:13:21Z</time></trkpt><trkpt lat="42.00714310283987" lon="-0.8292455515772447"><ele>446.0</ele><time>2026-03-30T15:13:22Z</time></trkpt><trkpt lat="42.00721504786209" lon="-0.8295449815714563"><ele>445.5</ele><time>2026-03-30T15:13:23Z</time></trkpt><trkpt lat="42.00728345243613" lon="-0.8298510252183914"><ele>445.0</ele><time>2026-03-30T15:13:24Z</time></trkpt><trkpt lat="42.00735331928724" lon="-0.8301653907447987"><ele>445.0</ele><time>2026-03-30T15:13:25Z</time></trkpt><trkpt lat="42.00742582802638" lon="-0.8304749125666386"><ele>445.0</ele><time>2026-03-30T15:13:26Z</time></trkpt><trkpt lat="42.007497839539774" lon="-0.830778396941319"><ele>443.0</ele><time>2026-03-30T15:13:27Z</time></trkpt><trkpt lat="42.00756197044654" lon="-0.8310808111676276"><ele>441.0</ele><time>2026-03-30T15:13:28Z</time></trkpt><trkpt lat="42.007628946800935" lon="-0.831383074744591"><ele>438.0</ele><time>2026-03-30T15:13:29Z</time></trkpt><trkpt lat="42.007770683816226" lon="-0.8319930713344358"><ele>438.0</ele><time>2026-03-30T15:13:31Z</time></trkpt><trkpt lat="42.007837383168045" lon="-0.8322960290766142"><ele>438.0</ele><time>2026-03-30T15:13:32Z</time></trkpt><trkpt lat="42.00790332865661" lon="-0.8326023309821479"><ele>437.0</ele><time>2026-03-30T15:13:33Z</time></trkpt><trkpt lat="42.00797452594998" lon="-0.832903712336569"><ele>436.0</ele><time>2026-03-30T15:13:34Z</time></trkpt><trkpt lat="42.00804293094539" lon="-0.8331989147819261"><ele>436.0</ele><time>2026-03-30T15:13:35Z</time></trkpt><trkpt lat="42.00811252917463" lon="-0.8334972192053046"><ele>436.0</ele><time>2026-03-30T15:13:36Z</time></trkpt><trkpt lat="42.008178206688946" lon="-0.8337773553561587"><ele>436.0</ele><time>2026-03-30T15:13:37Z</time></trkpt><trkpt lat="42.00824050731589" lon="-0.8340556935780246"><ele>436.0</ele><time>2026-03-30T15:13:38Z</time></trkpt><trkpt lat="42.00829879126767" lon="-0.8343211871423701"><ele>436.0</ele><time>2026-03-30T15:13:39Z</time></trkpt><trkpt lat="42.008354279986825" lon="-0.8345601391250516"><ele>436.6666666666667</ele><time>2026-03-30T15:13:40Z</time></trkpt><trkpt lat="42.008409493441434" lon="-0.8347905741766785"><ele>437.33333333333337</ele><time>2026-03-30T15:13:41Z</time></trkpt><trkpt lat="42.008450553066574" lon="-0.834997686257325"><ele>438.0</ele><time>2026-03-30T15:13:42Z</time></trkpt><trkpt lat="42.00848364104217" lon="-0.8351747899921227"><ele>438.2</ele><time>2026-03-30T15:13:43Z</time></trkpt><trkpt lat="42.0085191516688" lon="-0.835325315580983"><ele>438.4</ele><time>2026-03-30T15:13:44Z</time></trkpt><trkpt lat="42.00855412128384" lon="-0.8354499308053649"><ele>438.59999999999997</ele><time>2026-03-30T15:13:45Z</time></trkpt><trkpt lat="42.00858839680401" lon="-0.8355588526351024"><ele>438.79999999999995</ele><time>2026-03-30T15:13:46Z</time></trkpt><trkpt lat="42.00864026764735" lon="-0.835674218833264"><ele>439.0</ele><time>2026-03-30T15:13:47Z</time></trkpt><trkpt lat="42.00872561622259" lon="-0.8357931111450819"><ele>439.0</ele><time>2026-03-30T15:13:48Z</time></trkpt><trkpt lat="42.008854096586205" lon="-0.8359408703094172"><ele>439.0</ele><time>2026-03-30T15:13:49Z</time></trkpt><trkpt lat="42.00897303263161" lon="-0.8360769508918482"><ele>439.0</ele><time>2026-03-30T15:13:50Z</time></trkpt><trkpt lat="42.00909102552315" lon="-0.8362135822135731"><ele>438.5</ele><time>2026-03-30T15:13:51Z</time></trkpt><trkpt lat="42.00919012294704" lon="-0.8363326166619459"><ele>438.0</ele><time>2026-03-30T15:13:52Z</time></trkpt><trkpt lat="42.00929499679631" lon="-0.836463214466472"><ele>437.5</ele><time>2026-03-30T15:13:53Z</time></trkpt><trkpt lat="42.00940280517786" lon="-0.8365882352032091"><ele>437.0</ele><time>2026-03-30T15:13:54Z</time></trkpt><trkpt lat="42.00951471901917" lon="-0.8367164943385788"><ele>437.66666666666663</ele><time>2026-03-30T15:13:55Z</time></trkpt><trkpt lat="42.00964110711593" lon="-0.8368540889524141"><ele>438.33333333333337</ele><time>2026-03-30T15:13:56Z</time></trkpt><trkpt lat="42.00976995573983" lon="-0.8369966789693678"><ele>439.0</ele><time>2026-03-30T15:13:57Z</time></trkpt><trkpt lat="42.00990549256637" lon="-0.8371504434340177"><ele>438.0</ele><time>2026-03-30T15:13:58Z</time></trkpt><trkpt lat="42.010059049974366" lon="-0.8373160976121957"><ele>437.0</ele><time>2026-03-30T15:13:59Z</time></trkpt><trkpt lat="42.010216376499606" lon="-0.8374847124933826"><ele>436.0</ele><time>2026-03-30T15:14:00Z</time></trkpt><trkpt lat="42.01037529138883" lon="-0.8376586375477153"><ele>436.0</ele><time>2026-03-30T15:14:01Z</time></trkpt><trkpt lat="42.010531668247985" lon="-0.8378307419101918"><ele>436.0</ele><time>2026-03-30T15:14:02Z</time></trkpt><trkpt lat="42.01069936334627" lon="-0.8380132588257163"><ele>436.0</ele><time>2026-03-30T15:14:03Z</time></trkpt><trkpt lat="42.01086917914482" lon="-0.8381945242717279"><ele>435.0</ele><time>2026-03-30T15:14:04Z</time></trkpt><trkpt lat="42.011037525857056" lon="-0.8383727966767771"><ele>434.0</ele><time>2026-03-30T15:14:05Z</time></trkpt><trkpt lat="42.01120785523678" lon="-0.8385557901446704"><ele>433.0</ele><time>2026-03-30T15:14:06Z</time></trkpt><trkpt lat="42.01138034561052" lon="-0.8387452974774549"><ele>433.0</ele><time>2026-03-30T15:14:07Z</time></trkpt><trkpt lat="42.01155899345093" lon="-0.8389409269317074"><ele>433.0</ele><time>2026-03-30T15:14:08Z</time></trkpt><trkpt lat="42.01173641003506" lon="-0.8391350056370338"><ele>431.0</ele><time>2026-03-30T15:14:09Z</time></trkpt><trkpt lat="42.011914393999625" lon="-0.8393333334491931"><ele>429.0</ele><time>2026-03-30T15:14:10Z</time></trkpt><trkpt lat="42.0121079420331" lon="-0.839531747212604"><ele>429.0</ele><time>2026-03-30T15:14:11Z</time></trkpt><trkpt lat="42.012288987615065" lon="-0.8397280735572893"><ele>429.0</ele><time>2026-03-30T15:14:12Z</time></trkpt><trkpt lat="42.01246869197698" lon="-0.8399279148293407"><ele>428.5</ele><time>2026-03-30T15:14:13Z</time></trkpt><trkpt lat="42.012657160704265" lon="-0.8401308308655208"><ele>428.0</ele><time>2026-03-30T15:14:14Z</time></trkpt><trkpt lat="42.01284631495864" lon="-0.840335550456569"><ele>428.0</ele><time>2026-03-30T15:14:15Z</time></trkpt><trkpt lat="42.013033174418766" lon="-0.8405391577594594"><ele>428.0</ele><time>2026-03-30T15:14:16Z</time></trkpt><trkpt lat="42.0132210168923" lon="-0.8407347226119751"><ele>427.0</ele><time>2026-03-30T15:14:17Z</time></trkpt><trkpt lat="42.01340219626687" lon="-0.8409394546630989"><ele>426.0</ele><time>2026-03-30T15:14:18Z</time></trkpt><trkpt lat="42.013581020408786" lon="-0.8411479975154909"><ele>426.0</ele><time>2026-03-30T15:14:19Z</time></trkpt><trkpt lat="42.01377076703625" lon="-0.8413397575154234"><ele>426.0</ele><time>2026-03-30T15:14:20Z</time></trkpt><trkpt lat="42.01396078686907" lon="-0.8415352995564953"><ele>426.0</ele><time>2026-03-30T15:14:21Z</time></trkpt><trkpt lat="42.01414651059242" lon="-0.8417349359132127"><ele>426.0</ele><time>2026-03-30T15:14:22Z</time></trkpt><trkpt lat="42.014331640179286" lon="-0.8419355576874911"><ele>423.5</ele><time>2026-03-30T15:14:23Z</time></trkpt><trkpt lat="42.014520963677754" lon="-0.8421258130922323"><ele>421.0</ele><time>2026-03-30T15:14:24Z</time></trkpt><trkpt lat="42.01470989193972" lon="-0.842312140443749"><ele>421.0</ele><time>2026-03-30T15:14:25Z</time></trkpt><trkpt lat="42.01488885026527" lon="-0.8424941516614627"><ele>421.0</ele><time>2026-03-30T15:14:26Z</time></trkpt><trkpt lat="42.01507423679029" lon="-0.8426626149561036"><ele>421.0</ele><time>2026-03-30T15:14:27Z</time></trkpt><trkpt lat="42.01526737099694" lon="-0.842825645148146"><ele>423.0</ele><time>2026-03-30T15:14:28Z</time></trkpt><trkpt lat="42.01546192722379" lon="-0.8430124499872186"><ele>425.0</ele><time>2026-03-30T15:14:29Z</time></trkpt><trkpt lat="42.01564377382283" lon="-0.8431932789170675"><ele>425.3333333333333</ele><time>2026-03-30T15:14:30Z</time></trkpt><trkpt lat="42.01582173963416" lon="-0.8433639127732635"><ele>425.66666666666663</ele><time>2026-03-30T15:14:31Z</time></trkpt><trkpt lat="42.01598484908587" lon="-0.8435256133317304"><ele>426.0</ele><time>2026-03-30T15:14:32Z</time></trkpt><trkpt lat="42.016138580658854" lon="-0.843677564746559"><ele>427.0</ele><time>2026-03-30T15:14:33Z</time></trkpt><trkpt lat="42.016276979998786" lon="-0.8438106036871"><ele>428.0</ele><time>2026-03-30T15:14:34Z</time></trkpt><trkpt lat="42.01641399312461" lon="-0.8439558491036622"><ele>429.0</ele><time>2026-03-30T15:14:35Z</time></trkpt><trkpt lat="42.016552887491144" lon="-0.8441066418848243"><ele>427.33333333333337</ele><time>2026-03-30T15:14:36Z</time></trkpt><trkpt lat="42.01667234439154" lon="-0.8442456525647534"><ele>425.6666666666667</ele><time>2026-03-30T15:14:37Z</time></trkpt><trkpt lat="42.01678107452335" lon="-0.8443758725727866"><ele>424.0</ele><time>2026-03-30T15:14:38Z</time></trkpt><trkpt lat="42.016892901510666" lon="-0.8445046511618096"><ele>424.0</ele><time>2026-03-30T15:14:39Z</time></trkpt><trkpt lat="42.017002289900944" lon="-0.8446337087254203"><ele>424.0</ele><time>2026-03-30T15:14:40Z</time></trkpt><trkpt lat="42.01709959940437" lon="-0.8447520155766008"><ele>424.0</ele><time>2026-03-30T15:14:41Z</time></trkpt><trkpt lat="42.017185356476006" lon="-0.8448552232500397"><ele>424.0</ele><time>2026-03-30T15:14:42Z</time></trkpt><trkpt lat="42.01726121826475" lon="-0.8449414298033776"><ele>424.00000000000006</ele><time>2026-03-30T15:14:43Z</time></trkpt><trkpt lat="42.01733224211899" lon="-0.8450174490074814"><ele>424.0</ele><time>2026-03-30T15:14:44Z</time></trkpt><trkpt lat="42.01739112755698" lon="-0.8450859833715627"><ele>424.0</ele><time>2026-03-30T15:14:45Z</time></trkpt><trkpt lat="42.017441293363696" lon="-0.8451456514943352"><ele>424.0</ele><time>2026-03-30T15:14:46Z</time></trkpt><trkpt lat="42.01749695149335" lon="-0.845218798384873"><ele>424.00000000000006</ele><time>2026-03-30T15:14:48Z</time></trkpt><trkpt lat="42.01756210697473" lon="-0.8452679287764374"><ele>424.0</ele><time>2026-03-30T15:15:31Z</time></trkpt><trkpt lat="42.01766093561816" lon="-0.8453802213523522"><ele>424.6</ele><time>2026-03-30T15:15:33Z</time></trkpt><trkpt lat="42.01771818598449" lon="-0.8454460873663292"><ele>425.2</ele><time>2026-03-30T15:15:34Z</time></trkpt><trkpt lat="42.01778232466672" lon="-0.8455173947797359"><ele>425.80000000000007</ele><time>2026-03-30T15:15:35Z</time></trkpt><trkpt lat="42.0178611409396" lon="-0.8455967577885987"><ele>426.40000000000003</ele><time>2026-03-30T15:15:36Z</time></trkpt><trkpt lat="42.017956310136015" lon="-0.8456788600647095"><ele>427.0</ele><time>2026-03-30T15:15:37Z</time></trkpt><trkpt lat="42.018052314267884" lon="-0.8457673501346231"><ele>427.0</ele><time>2026-03-30T15:15:38Z</time></trkpt><trkpt lat="42.01815756701279" lon="-0.8458569598929225"><ele>427.0</ele><time>2026-03-30T15:15:39Z</time></trkpt><trkpt lat="42.01826968903101" lon="-0.845948788704576"><ele>427.0</ele><time>2026-03-30T15:15:40Z</time></trkpt><trkpt lat="42.018389984059375" lon="-0.8460382293487049"><ele>427.0</ele><time>2026-03-30T15:15:41Z</time></trkpt><trkpt lat="42.01851891127265" lon="-0.8461215237347383"><ele>428.25</ele><time>2026-03-30T15:15:42Z</time></trkpt><trkpt lat="42.01864939736017" lon="-0.8462016980817856"><ele>429.5</ele><time>2026-03-30T15:15:43Z</time></trkpt><trkpt lat="42.018780786876945" lon="-0.8462798941021478"><ele>430.75</ele><time>2026-03-30T15:15:44Z</time></trkpt><trkpt lat="42.01891375366863" lon="-0.8463552992192241"><ele>432.0</ele><time>2026-03-30T15:15:45Z</time></trkpt><trkpt lat="42.019053696202505" lon="-0.8464297810452389"><ele>430.66666666666663</ele><time>2026-03-30T15:15:46Z</time></trkpt><trkpt lat="42.019208476725645" lon="-0.8465086008530981"><ele>429.3333333333333</ele><time>2026-03-30T15:15:47Z</time></trkpt><trkpt lat="42.019368005247074" lon="-0.8465945318061451"><ele>428.0</ele><time>2026-03-30T15:15:48Z</time></trkpt><trkpt lat="42.019531241738036" lon="-0.846686294990261"><ele>428.0</ele><time>2026-03-30T15:15:49Z</time></trkpt><trkpt lat="42.01969713060831" lon="-0.8467897029864926"><ele>428.0</ele><time>2026-03-30T15:15:50Z</time></trkpt><trkpt lat="42.01986781970311" lon="-0.8468955119296032"><ele>428.0</ele><time>2026-03-30T15:15:51Z</time></trkpt><trkpt lat="42.02003807031272" lon="-0.847003377260344"><ele>428.3333333333333</ele><time>2026-03-30T15:15:52Z</time></trkpt><trkpt lat="42.020212076225754" lon="-0.8471309637886905"><ele>428.66666666666663</ele><time>2026-03-30T15:15:53Z</time></trkpt><trkpt lat="42.0203861914368" lon="-0.8472597641887964"><ele>429.0</ele><time>2026-03-30T15:15:54Z</time></trkpt><trkpt lat="42.02055046846638" lon="-0.8473834151259378"><ele>429.0</ele><time>2026-03-30T15:15:55Z</time></trkpt><trkpt lat="42.02071280917148" lon="-0.8475249409224118"><ele>429.0</ele><time>2026-03-30T15:15:56Z</time></trkpt><trkpt lat="42.02087372743109" lon="-0.8476792614093176"><ele>429.0</ele><time>2026-03-30T15:15:57Z</time></trkpt><trkpt lat="42.02104668703694" lon="-0.8478221307279945"><ele>431.33333333333337</ele><time>2026-03-30T15:15:58Z</time></trkpt><trkpt lat="42.02121773861037" lon="-0.8479749578362762"><ele>433.6666666666667</ele><time>2026-03-30T15:15:59Z</time></trkpt><trkpt lat="42.021387555247365" lon="-0.8481297526080234"><ele>436.0</ele><time>2026-03-30T15:16:00Z</time></trkpt><trkpt lat="42.021557309933996" lon="-0.8482901708294371"><ele>435.33333333333337</ele><time>2026-03-30T15:16:01Z</time></trkpt><trkpt lat="42.02173168605707" lon="-0.8484565585818434"><ele>434.66666666666663</ele><time>2026-03-30T15:16:02Z</time></trkpt><trkpt lat="42.02192103669474" lon="-0.8486165067176892"><ele>434.0</ele><time>2026-03-30T15:16:03Z</time></trkpt><trkpt lat="42.02210427212704" lon="-0.8487718046105385"><ele>435.0</ele><time>2026-03-30T15:16:04Z</time></trkpt><trkpt lat="42.02227979355492" lon="-0.8489350668300829"><ele>436.0</ele><time>2026-03-30T15:16:05Z</time></trkpt><trkpt lat="42.02246317402799" lon="-0.8491037937811136"><ele>437.0</ele><time>2026-03-30T15:16:06Z</time></trkpt><trkpt lat="42.02264762152755" lon="-0.8492695805181572"><ele>438.3333333333333</ele><time>2026-03-30T15:16:07Z</time></trkpt><trkpt lat="42.022828849433324" lon="-0.8494284571317061"><ele>439.66666666666663</ele><time>2026-03-30T15:16:08Z</time></trkpt><trkpt lat="42.02300872005595" lon="-0.849590435862371"><ele>441.0</ele><time>2026-03-30T15:16:09Z</time></trkpt><trkpt lat="42.023187913467176" lon="-0.8497556975983785"><ele>441.0</ele><time>2026-03-30T15:16:10Z</time></trkpt><trkpt lat="42.02336760910073" lon="-0.8499240639586128"><ele>441.0</ele><time>2026-03-30T15:16:11Z</time></trkpt><trkpt lat="42.023552346657674" lon="-0.8500905862720246"><ele>441.0</ele><time>2026-03-30T15:16:12Z</time></trkpt><trkpt lat="42.02374279311914" lon="-0.8502584953775357"><ele>441.0</ele><time>2026-03-30T15:16:13Z</time></trkpt><trkpt lat="42.02393010598549" lon="-0.850417719754008"><ele>441.0</ele><time>2026-03-30T15:16:14Z</time></trkpt><trkpt lat="42.02411405634471" lon="-0.8505791922354226"><ele>441.0</ele><time>2026-03-30T15:16:15Z</time></trkpt><trkpt lat="42.024294527023976" lon="-0.850754848891909"><ele>440.0</ele><time>2026-03-30T15:16:16Z</time></trkpt><trkpt lat="42.02447643857907" lon="-0.8509332769372258"><ele>439.0</ele><time>2026-03-30T15:16:17Z</time></trkpt><trkpt lat="42.024658384285374" lon="-0.8511115108336109"><ele>439.0</ele><time>2026-03-30T15:16:18Z</time></trkpt><trkpt lat="42.02483649392007" lon="-0.8512930179626862"><ele>439.0</ele><time>2026-03-30T15:16:19Z</time></trkpt><trkpt lat="42.02500851214635" lon="-0.8514771825259209"><ele>439.0</ele><time>2026-03-30T15:16:20Z</time></trkpt><trkpt lat="42.02517193672785" lon="-0.8516873661657706"><ele>440.6666666666667</ele><time>2026-03-30T15:16:21Z</time></trkpt><trkpt lat="42.02531993456912" lon="-0.8519026570431436"><ele>442.33333333333337</ele><time>2026-03-30T15:16:22Z</time></trkpt><trkpt lat="42.025465419388304" lon="-0.8521383168046354"><ele>444.0</ele><time>2026-03-30T15:16:23Z</time></trkpt><trkpt lat="42.02560805156537" lon="-0.8523852121874318"><ele>448.0</ele><time>2026-03-30T15:16:24Z</time></trkpt><trkpt lat="42.02575069019103" lon="-0.852630895928632"><ele>452.0</ele><time>2026-03-30T15:16:25Z</time></trkpt><trkpt lat="42.02589165422939" lon="-0.8528776218785163"><ele>452.5</ele><time>2026-03-30T15:16:26Z</time></trkpt><trkpt lat="42.02602926184217" lon="-0.8531269922632538"><ele>453.0</ele><time>2026-03-30T15:16:27Z</time></trkpt><trkpt lat="42.02615780664851" lon="-0.8533789682641294"><ele>455.0</ele><time>2026-03-30T15:16:28Z</time></trkpt><trkpt lat="42.02628939626885" lon="-0.8536298756382915"><ele>457.0</ele><time>2026-03-30T15:16:29Z</time></trkpt><trkpt lat="42.02642115529716" lon="-0.8538833867577603"><ele>457.0</ele><time>2026-03-30T15:16:30Z</time></trkpt><trkpt lat="42.02654714340168" lon="-0.8541336777196613"><ele>457.0</ele><time>2026-03-30T15:16:31Z</time></trkpt><trkpt lat="42.026675624500314" lon="-0.854382512018484"><ele>456.33333333333337</ele><time>2026-03-30T15:16:32Z</time></trkpt><trkpt lat="42.026800143990826" lon="-0.8546344106836572"><ele>455.66666666666663</ele><time>2026-03-30T15:16:33Z</time></trkpt><trkpt lat="42.02691764892094" lon="-0.8548869808165694"><ele>455.0</ele><time>2026-03-30T15:16:34Z</time></trkpt><trkpt lat="42.027035256213196" lon="-0.8551478591689572"><ele>455.0</ele><time>2026-03-30T15:16:35Z</time></trkpt><trkpt lat="42.0271535938421" lon="-0.8554108841939424"><ele>455.0</ele><time>2026-03-30T15:16:36Z</time></trkpt><trkpt lat="42.027275060554146" lon="-0.8556773817921562"><ele>455.0</ele><time>2026-03-30T15:16:37Z</time></trkpt><trkpt lat="42.02739973229613" lon="-0.8559413435578074"><ele>455.0</ele><time>2026-03-30T15:16:38Z</time></trkpt><trkpt lat="42.02752594095768" lon="-0.8562026009707878"><ele>454.0</ele><time>2026-03-30T15:16:39Z</time></trkpt><trkpt lat="42.027653270882276" lon="-0.8564667235862901"><ele>453.0</ele><time>2026-03-30T15:16:40Z</time></trkpt><trkpt lat="42.02777614306617" lon="-0.8567336518158167"><ele>453.0</ele><time>2026-03-30T15:16:41Z</time></trkpt><trkpt lat="42.027894221088005" lon="-0.857002118008881"><ele>453.0</ele><time>2026-03-30T15:16:42Z</time></trkpt><trkpt lat="42.02801446009736" lon="-0.8572693458448224"><ele>453.0</ele><time>2026-03-30T15:16:43Z</time></trkpt><trkpt lat="42.0281459564529" lon="-0.8575412225228087"><ele>453.0</ele><time>2026-03-30T15:16:44Z</time></trkpt><trkpt lat="42.02827206968067" lon="-0.8578091791986551"><ele>452.0</ele><time>2026-03-30T15:16:45Z</time></trkpt><trkpt lat="42.028391590915184" lon="-0.8580738442642237"><ele>451.0</ele><time>2026-03-30T15:16:46Z</time></trkpt><trkpt lat="42.02851722473486" lon="-0.8583468674660181"><ele>451.5</ele><time>2026-03-30T15:16:47Z</time></trkpt><trkpt lat="42.028646590160456" lon="-0.8586161416269876"><ele>452.0</ele><time>2026-03-30T15:16:48Z</time></trkpt><trkpt lat="42.02877103428699" lon="-0.8588814396293432"><ele>452.0</ele><time>2026-03-30T15:16:49Z</time></trkpt><trkpt lat="42.0288943349698" lon="-0.8591415863712962"><ele>452.0</ele><time>2026-03-30T15:16:50Z</time></trkpt><trkpt lat="42.02901534714285" lon="-0.8594096784835035"><ele>451.0</ele><time>2026-03-30T15:16:51Z</time></trkpt><trkpt lat="42.029136993284304" lon="-0.8596871943412359"><ele>450.0</ele><time>2026-03-30T15:16:52Z</time></trkpt><trkpt lat="42.0292651008519" lon="-0.859965013575166"><ele>448.5</ele><time>2026-03-30T15:16:53Z</time></trkpt><trkpt lat="42.02939852862791" lon="-0.8602423099418246"><ele>447.0</ele><time>2026-03-30T15:16:54Z</time></trkpt><trkpt lat="42.029527484166806" lon="-0.8605141164053649"><ele>447.0</ele><time>2026-03-30T15:16:55Z</time></trkpt><trkpt lat="42.029649044034485" lon="-0.8607929832595482"><ele>447.0</ele><time>2026-03-30T15:16:56Z</time></trkpt><trkpt lat="42.02977422692345" lon="-0.8610759631312144"><ele>448.5</ele><time>2026-03-30T15:16:57Z</time></trkpt><trkpt lat="42.02990392329092" lon="-0.8613535734544473"><ele>450.0</ele><time>2026-03-30T15:16:58Z</time></trkpt><trkpt lat="42.03003584844939" lon="-0.8616287005665451"><ele>447.5</ele><time>2026-03-30T15:16:59Z</time></trkpt><trkpt lat="42.03016583415739" lon="-0.8618958902129281"><ele>445.0</ele><time>2026-03-30T15:17:00Z</time></trkpt><trkpt lat="42.03028871508877" lon="-0.8621516546135517"><ele>445.0</ele><time>2026-03-30T15:17:01Z</time></trkpt><trkpt lat="42.0304058433194" lon="-0.8624114791149019"><ele>445.0</ele><time>2026-03-30T15:17:02Z</time></trkpt><trkpt lat="42.03052463888478" lon="-0.8626730949485469"><ele>446.5</ele><time>2026-03-30T15:17:03Z</time></trkpt><trkpt lat="42.03064386305722" lon="-0.8629353250631104"><ele>448.0</ele><time>2026-03-30T15:17:04Z</time></trkpt><trkpt lat="42.03076779490536" lon="-0.8631978796015782"><ele>448.0</ele><time>2026-03-30T15:17:05Z</time></trkpt><trkpt lat="42.030888909474896" lon="-0.8634537246631977"><ele>448.0</ele><time>2026-03-30T15:17:06Z</time></trkpt><trkpt lat="42.031001684166824" lon="-0.8637088450965628"><ele>448.0</ele><time>2026-03-30T15:17:07Z</time></trkpt><trkpt lat="42.031118158181414" lon="-0.8639627676095522"><ele>448.0</ele><time>2026-03-30T15:17:08Z</time></trkpt><trkpt lat="42.03123537074257" lon="-0.8642119950944915"><ele>448.0</ele><time>2026-03-30T15:17:09Z</time></trkpt><trkpt lat="42.03135215608387" lon="-0.8644635729688096"><ele>448.0</ele><time>2026-03-30T15:17:10Z</time></trkpt><trkpt lat="42.03147386238284" lon="-0.8647153628142289"><ele>448.33333333333337</ele><time>2026-03-30T15:17:11Z</time></trkpt><trkpt lat="42.031591841732734" lon="-0.8649723624668435"><ele>448.66666666666663</ele><time>2026-03-30T15:17:12Z</time></trkpt><trkpt lat="42.03170305640367" lon="-0.865220878575928"><ele>449.0</ele><time>2026-03-30T15:17:13Z</time></trkpt><trkpt lat="42.031815711421686" lon="-0.8654694473497235"><ele>449.0</ele><time>2026-03-30T15:17:14Z</time></trkpt><trkpt lat="42.03193433233069" lon="-0.8657184182063554"><ele>449.0</ele><time>2026-03-30T15:17:15Z</time></trkpt><trkpt lat="42.03206027001774" lon="-0.8659789596311024"><ele>450.0</ele><time>2026-03-30T15:17:16Z</time></trkpt><trkpt lat="42.03217783774234" lon="-0.8662406953268903"><ele>451.0</ele><time>2026-03-30T15:17:17Z</time></trkpt><trkpt lat="42.0322962906804" lon="-0.86649613678926"><ele>451.0</ele><time>2026-03-30T15:17:18Z</time></trkpt><trkpt lat="42.03241499216713" lon="-0.8667532032373695"><ele>451.0</ele><time>2026-03-30T15:17:19Z</time></trkpt><trkpt lat="42.03253282210727" lon="-0.8670241050105695"><ele>450.5</ele><time>2026-03-30T15:17:20Z</time></trkpt><trkpt lat="42.032660055195805" lon="-0.8673026261622786"><ele>450.0</ele><time>2026-03-30T15:17:21Z</time></trkpt><trkpt lat="42.03280056371203" lon="-0.8675927831794557"><ele>451.5</ele><time>2026-03-30T15:17:22Z</time></trkpt><trkpt lat="42.032934189262626" lon="-0.8678754996928242"><ele>453.0</ele><time>2026-03-30T15:17:23Z</time></trkpt><trkpt lat="42.03305880554066" lon="-0.8681475537867942"><ele>453.0</ele><time>2026-03-30T15:17:24Z</time></trkpt><trkpt lat="42.03317814012028" lon="-0.8684107042295737"><ele>453.0</ele><time>2026-03-30T15:17:25Z</time></trkpt><trkpt lat="42.03330117900984" lon="-0.868684713485043"><ele>453.0</ele><time>2026-03-30T15:17:26Z</time></trkpt><trkpt lat="42.033429757240455" lon="-0.8689591665524645"><ele>453.0</ele><time>2026-03-30T15:17:27Z</time></trkpt><trkpt lat="42.03355650624436" lon="-0.8692198869396881"><ele>453.5</ele><time>2026-03-30T15:17:28Z</time></trkpt><trkpt lat="42.03368095845928" lon="-0.8694854890782873"><ele>454.0</ele><time>2026-03-30T15:17:29Z</time></trkpt><trkpt lat="42.03380436772679" lon="-0.8697605321388531"><ele>454.0</ele><time>2026-03-30T15:17:30Z</time></trkpt><trkpt lat="42.03393663867101" lon="-0.8700445867440679"><ele>454.0</ele><time>2026-03-30T15:17:31Z</time></trkpt><trkpt lat="42.034061869971566" lon="-0.8703096640064567"><ele>456.5</ele><time>2026-03-30T15:17:32Z</time></trkpt><trkpt lat="42.034178562748345" lon="-0.8705654144235371"><ele>459.0</ele><time>2026-03-30T15:17:33Z</time></trkpt><trkpt lat="42.03431081433021" lon="-0.8708530716707006"><ele>459.5</ele><time>2026-03-30T15:17:34Z</time></trkpt><trkpt lat="42.0344464712763" lon="-0.8711389790469173"><ele>460.0</ele><time>2026-03-30T15:17:35Z</time></trkpt><trkpt lat="42.03456704893722" lon="-0.8713999005148545"><ele>460.0</ele><time>2026-03-30T15:17:36Z</time></trkpt><trkpt lat="42.03468619949802" lon="-0.8716688787007073"><ele>460.0</ele><time>2026-03-30T15:17:37Z</time></trkpt><trkpt lat="42.034809423080524" lon="-0.8719351696148678"><ele>461.33333333333337</ele><time>2026-03-30T15:17:38Z</time></trkpt><trkpt lat="42.034930226991335" lon="-0.8721865417527638"><ele>462.66666666666663</ele><time>2026-03-30T15:17:39Z</time></trkpt><trkpt lat="42.03504135028158" lon="-0.8724317469233934"><ele>464.0</ele><time>2026-03-30T15:17:40Z</time></trkpt><trkpt lat="42.035136106859596" lon="-0.8726870697232246"><ele>464.0</ele><time>2026-03-30T15:17:41Z</time></trkpt><trkpt lat="42.03521416617009" lon="-0.8729447096455065"><ele>464.0</ele><time>2026-03-30T15:17:42Z</time></trkpt><trkpt lat="42.03527651211134" lon="-0.8732143771189753"><ele>464.0</ele><time>2026-03-30T15:17:43Z</time></trkpt><trkpt lat="42.03532005805343" lon="-0.8734963209382219"><ele>464.0</ele><time>2026-03-30T15:17:44Z</time></trkpt><trkpt lat="42.03535805569427" lon="-0.8737862624340055"><ele>464.0</ele><time>2026-03-30T15:17:45Z</time></trkpt><trkpt lat="42.03539578761899" lon="-0.8740910217454466"><ele>464.0</ele><time>2026-03-30T15:17:46Z</time></trkpt><trkpt lat="42.035429374141565" lon="-0.8743969858077759"><ele>462.5</ele><time>2026-03-30T15:17:47Z</time></trkpt><trkpt lat="42.035466278991805" lon="-0.8747072245950083"><ele>461.0</ele><time>2026-03-30T15:17:48Z</time></trkpt><trkpt lat="42.03550715192605" lon="-0.8750149277648854"><ele>461.5</ele><time>2026-03-30T15:17:49Z</time></trkpt><trkpt lat="42.035550100873465" lon="-0.875325093699657"><ele>462.0</ele><time>2026-03-30T15:17:50Z</time></trkpt><trkpt lat="42.03559261137824" lon="-0.8756317224978752"><ele>462.0</ele><time>2026-03-30T15:17:51Z</time></trkpt><trkpt lat="42.03563068177464" lon="-0.8759519613144768"><ele>462.0</ele><time>2026-03-30T15:17:52Z</time></trkpt><trkpt lat="42.03566448133059" lon="-0.876252536191757"><ele>462.0</ele><time>2026-03-30T15:17:53Z</time></trkpt><trkpt lat="42.03570295030188" lon="-0.8765421187058524"><ele>462.0</ele><time>2026-03-30T15:17:54Z</time></trkpt><trkpt lat="42.03573934019364" lon="-0.8768289970762471"><ele>462.0</ele><time>2026-03-30T15:17:55Z</time></trkpt><trkpt lat="42.03577386210249" lon="-0.8771160183719039"><ele>461.66666666666663</ele><time>2026-03-30T15:17:56Z</time></trkpt><trkpt lat="42.035813831066605" lon="-0.8774094246059554"><ele>461.3333333333333</ele><time>2026-03-30T15:17:57Z</time></trkpt><trkpt lat="42.03586812605257" lon="-0.8776836998636911"><ele>461.0</ele><time>2026-03-30T15:17:58Z</time></trkpt><trkpt lat="42.03592909808123" lon="-0.8779449490753779"><ele>461.0</ele><time>2026-03-30T15:17:59Z</time></trkpt><trkpt lat="42.035990883399194" lon="-0.8782052144116741"><ele>461.0</ele><time>2026-03-30T15:18:00Z</time></trkpt><trkpt lat="42.03606474927102" lon="-0.8784610854455331"><ele>461.0</ele><time>2026-03-30T15:18:01Z</time></trkpt><trkpt lat="42.03614788590981" lon="-0.8787161212004186"><ele>461.66666666666663</ele><time>2026-03-30T15:18:02Z</time></trkpt><trkpt lat="42.036246469157476" lon="-0.8789702460084795"><ele>462.33333333333337</ele><time>2026-03-30T15:18:03Z</time></trkpt><trkpt lat="42.036356096913046" lon="-0.8792153978330116"><ele>463.0</ele><time>2026-03-30T15:18:04Z</time></trkpt><trkpt lat="42.03647143142955" lon="-0.8794623174698355"><ele>463.6666666666667</ele><time>2026-03-30T15:18:05Z</time></trkpt><trkpt lat="42.03658669290553" lon="-0.8797078152571743"><ele>464.33333333333337</ele><time>2026-03-30T15:18:06Z</time></trkpt><trkpt lat="42.03670756234578" lon="-0.8799631382605789"><ele>465.0</ele><time>2026-03-30T15:18:07Z</time></trkpt><trkpt lat="42.03683584548581" lon="-0.8802151074360205"><ele>465.0</ele><time>2026-03-30T15:18:08Z</time></trkpt><trkpt lat="42.036968090056654" lon="-0.8804551083751108"><ele>465.0</ele><time>2026-03-30T15:18:09Z</time></trkpt><trkpt lat="42.03710977616081" lon="-0.8806949584358629"><ele>464.0</ele><time>2026-03-30T15:18:10Z</time></trkpt><trkpt lat="42.037255524267024" lon="-0.8809386468834205"><ele>463.0</ele><time>2026-03-30T15:18:11Z</time></trkpt><trkpt lat="42.03740320955971" lon="-0.881182381894657"><ele>461.5</ele><time>2026-03-30T15:18:12Z</time></trkpt><trkpt lat="42.037552673725024" lon="-0.8814271167019468"><ele>460.0</ele><time>2026-03-30T15:18:13Z</time></trkpt><trkpt lat="42.03770969810284" lon="-0.8816855971346915"><ele>460.5</ele><time>2026-03-30T15:18:14Z</time></trkpt><trkpt lat="42.03787434429331" lon="-0.8819385543290492"><ele>461.0</ele><time>2026-03-30T15:18:15Z</time></trkpt><trkpt lat="42.0380457929691" lon="-0.8821779104105155"><ele>461.0</ele><time>2026-03-30T15:18:16Z</time></trkpt><trkpt lat="42.03822044753424" lon="-0.8824179345070351"><ele>461.0</ele><time>2026-03-30T15:18:17Z</time></trkpt><trkpt lat="42.038393964737736" lon="-0.8826661191184432"><ele>459.5</ele><time>2026-03-30T15:18:18Z</time></trkpt><trkpt lat="42.03855494410119" lon="-0.88292746073956"><ele>458.0</ele><time>2026-03-30T15:18:19Z</time></trkpt><trkpt lat="42.03870266809963" lon="-0.8831999796979786"><ele>459.0</ele><time>2026-03-30T15:18:20Z</time></trkpt><trkpt lat="42.03883657678768" lon="-0.8834852426535109"><ele>460.0</ele><time>2026-03-30T15:18:21Z</time></trkpt><trkpt lat="42.03897514472162" lon="-0.8837955184600824"><ele>460.0</ele><time>2026-03-30T15:18:22Z</time></trkpt><trkpt lat="42.03910583944781" lon="-0.8841182479519922"><ele>460.0</ele><time>2026-03-30T15:18:23Z</time></trkpt><trkpt lat="42.03923405750986" lon="-0.8844483921739343"><ele>459.0</ele><time>2026-03-30T15:18:24Z</time></trkpt><trkpt lat="42.03938029909415" lon="-0.8847700937538331"><ele>458.0</ele><time>2026-03-30T15:18:25Z</time></trkpt><trkpt lat="42.03950502990333" lon="-0.8851050228490014"><ele>458.0</ele><time>2026-03-30T15:18:26Z</time></trkpt><trkpt lat="42.039633102017106" lon="-0.8854333100021755"><ele>458.0</ele><time>2026-03-30T15:18:27Z</time></trkpt><trkpt lat="42.03975998658077" lon="-0.8857536423477713"><ele>458.0</ele><time>2026-03-30T15:18:28Z</time></trkpt><trkpt lat="42.039882615062574" lon="-0.886072544266359"><ele>458.0</ele><time>2026-03-30T15:18:29Z</time></trkpt><trkpt lat="42.04000174093383" lon="-0.8863868421211122"><ele>458.0</ele><time>2026-03-30T15:18:30Z</time></trkpt><trkpt lat="42.04012225975143" lon="-0.8867026246995285"><ele>458.0</ele><time>2026-03-30T15:18:31Z</time></trkpt><trkpt lat="42.040248074600385" lon="-0.8870129675421642"><ele>458.5</ele><time>2026-03-30T15:18:32Z</time></trkpt><trkpt lat="42.040368820537985" lon="-0.8873226829923825"><ele>459.0</ele><time>2026-03-30T15:18:33Z</time></trkpt><trkpt lat="42.04048415911924" lon="-0.8876296798717749"><ele>460.0</ele><time>2026-03-30T15:18:34Z</time></trkpt><trkpt lat="42.04060454163588" lon="-0.8879370492447779"><ele>461.0</ele><time>2026-03-30T15:18:35Z</time></trkpt><trkpt lat="42.04073333546047" lon="-0.8882500204145645"><ele>463.5</ele><time>2026-03-30T15:18:36Z</time></trkpt><trkpt lat="42.040853404031225" lon="-0.8885617053262014"><ele>466.0</ele><time>2026-03-30T15:18:37Z</time></trkpt><trkpt lat="42.04097142008272" lon="-0.8888756085804993"><ele>466.0</ele><time>2026-03-30T15:18:38Z</time></trkpt><trkpt lat="42.041097350573274" lon="-0.8891937375423444"><ele>466.0</ele><time>2026-03-30T15:18:39Z</time></trkpt><trkpt lat="42.041220176972985" lon="-0.8895093349260146"><ele>468.0</ele><time>2026-03-30T15:18:40Z</time></trkpt><trkpt lat="42.04134198458808" lon="-0.8898240442753079"><ele>470.0</ele><time>2026-03-30T15:18:41Z</time></trkpt><trkpt lat="42.041463169672035" lon="-0.8901421365058488"><ele>471.5</ele><time>2026-03-30T15:18:42Z</time></trkpt><trkpt lat="42.04158720829547" lon="-0.8904641983128849"><ele>473.0</ele><time>2026-03-30T15:18:43Z</time></trkpt><trkpt lat="42.041710737962866" lon="-0.8907834319275839"><ele>470.5</ele><time>2026-03-30T15:18:44Z</time></trkpt><trkpt lat="42.041833271179335" lon="-0.8910935970967541"><ele>468.0</ele><time>2026-03-30T15:18:45Z</time></trkpt><trkpt lat="42.041952567691226" lon="-0.891402944674601"><ele>468.0</ele><time>2026-03-30T15:18:46Z</time></trkpt><trkpt lat="42.042086756496154" lon="-0.8917164808660053"><ele>468.0</ele><time>2026-03-30T15:18:47Z</time></trkpt><trkpt lat="42.04221145410201" lon="-0.8920288278420354"><ele>467.5</ele><time>2026-03-30T15:18:48Z</time></trkpt><trkpt lat="42.04233534322477" lon="-0.8923382570523408"><ele>467.0</ele><time>2026-03-30T15:18:49Z</time></trkpt><trkpt lat="42.04245305796751" lon="-0.8926599803819425"><ele>464.5</ele><time>2026-03-30T15:18:50Z</time></trkpt><trkpt lat="42.04257810371644" lon="-0.892989034433384"><ele>462.0</ele><time>2026-03-30T15:18:51Z</time></trkpt><trkpt lat="42.04270617946283" lon="-0.8933204117568709"><ele>462.5</ele><time>2026-03-30T15:18:52Z</time></trkpt><trkpt lat="42.04283750180188" lon="-0.8936522334866897"><ele>463.0</ele><time>2026-03-30T15:18:53Z</time></trkpt><trkpt lat="42.04296439399143" lon="-0.8939804604259367"><ele>463.0</ele><time>2026-03-30T15:18:54Z</time></trkpt><trkpt lat="42.04309252691818" lon="-0.8943068029943864"><ele>463.0</ele><time>2026-03-30T15:18:55Z</time></trkpt><trkpt lat="42.043219553529326" lon="-0.894630688614882"><ele>462.0</ele><time>2026-03-30T15:18:56Z</time></trkpt><trkpt lat="42.04334402929951" lon="-0.8949485390332516"><ele>461.0</ele><time>2026-03-30T15:18:57Z</time></trkpt><trkpt lat="42.04347149942532" lon="-0.8952644361066433"><ele>461.0</ele><time>2026-03-30T15:18:58Z</time></trkpt><trkpt lat="42.043594745893316" lon="-0.8955756697657358"><ele>461.0</ele><time>2026-03-30T15:18:59Z</time></trkpt><trkpt lat="42.04371813030519" lon="-0.8958899502838401"><ele>462.5</ele><time>2026-03-30T15:19:00Z</time></trkpt><trkpt lat="42.04383791997307" lon="-0.8962047450472758"><ele>464.0</ele><time>2026-03-30T15:19:01Z</time></trkpt><trkpt lat="42.043954840102494" lon="-0.8965115455066401"><ele>462.5</ele><time>2026-03-30T15:19:02Z</time></trkpt><trkpt lat="42.04407260434265" lon="-0.8968174546297003"><ele>461.0</ele><time>2026-03-30T15:19:03Z</time></trkpt><trkpt lat="42.0441944156164" lon="-0.897131436737106"><ele>461.0</ele><time>2026-03-30T15:19:04Z</time></trkpt><trkpt lat="42.04431981797372" lon="-0.8974443950916406"><ele>461.0</ele><time>2026-03-30T15:19:05Z</time></trkpt><trkpt lat="42.04444484194487" lon="-0.8977657517519412"><ele>461.0</ele><time>2026-03-30T15:19:06Z</time></trkpt><trkpt lat="42.044569512709316" lon="-0.8980837675607551"><ele>461.0</ele><time>2026-03-30T15:19:07Z</time></trkpt><trkpt lat="42.044693955975326" lon="-0.89839585129859"><ele>460.5</ele><time>2026-03-30T15:19:08Z</time></trkpt><trkpt lat="42.0448182256087" lon="-0.8987078521792486"><ele>460.0</ele><time>2026-03-30T15:19:09Z</time></trkpt><trkpt lat="42.04493731375909" lon="-0.8990203920255128"><ele>458.5</ele><time>2026-03-30T15:19:10Z</time></trkpt><trkpt lat="42.04505745584007" lon="-0.8993291226784508"><ele>457.0</ele><time>2026-03-30T15:19:11Z</time></trkpt><trkpt lat="42.045173814244556" lon="-0.8996308317746913"><ele>457.0</ele><time>2026-03-30T15:19:12Z</time></trkpt><trkpt lat="42.04528880259639" lon="-0.8999311527211259"><ele>457.0</ele><time>2026-03-30T15:19:13Z</time></trkpt><trkpt lat="42.045403292568594" lon="-0.9002269149522542"><ele>457.0</ele><time>2026-03-30T15:19:14Z</time></trkpt><trkpt lat="42.0455188869849" lon="-0.9005248753974386"><ele>457.0</ele><time>2026-03-30T15:19:15Z</time></trkpt><trkpt lat="42.04563904191614" lon="-0.9008221685376218"><ele>458.0</ele><time>2026-03-30T15:19:16Z</time></trkpt><trkpt lat="42.04575832158811" lon="-0.9011193514460138"><ele>459.0</ele><time>2026-03-30T15:19:17Z</time></trkpt><trkpt lat="42.0458728104786" lon="-0.9014219134414936"><ele>456.5</ele><time>2026-03-30T15:19:18Z</time></trkpt><trkpt lat="42.045987596407386" lon="-0.901720685533456"><ele>454.0</ele><time>2026-03-30T15:19:19Z</time></trkpt><trkpt lat="42.04610820970496" lon="-0.9020183835947602"><ele>454.0</ele><time>2026-03-30T15:19:20Z</time></trkpt><trkpt lat="42.04623635339998" lon="-0.9023138942674986"><ele>454.0</ele><time>2026-03-30T15:19:21Z</time></trkpt><trkpt lat="42.04636277545607" lon="-0.902601415078188"><ele>454.5</ele><time>2026-03-30T15:19:22Z</time></trkpt><trkpt lat="42.04649016157297" lon="-0.9028771694711689"><ele>455.0</ele><time>2026-03-30T15:19:23Z</time></trkpt><trkpt lat="42.046637118076916" lon="-0.9031409052259639"><ele>453.5</ele><time>2026-03-30T15:19:24Z</time></trkpt><trkpt lat="42.04679837853696" lon="-0.9034033929667947"><ele>452.0</ele><time>2026-03-30T15:19:25Z</time></trkpt><trkpt lat="42.046959891646985" lon="-0.9036636512410168"><ele>452.0</ele><time>2026-03-30T15:19:26Z</time></trkpt><trkpt lat="42.0471231687177" lon="-0.9039216335240601"><ele>452.0</ele><time>2026-03-30T15:19:27Z</time></trkpt><trkpt lat="42.04728859030618" lon="-0.9041793405812929"><ele>451.5</ele><time>2026-03-30T15:19:28Z</time></trkpt><trkpt lat="42.04745597478113" lon="-0.9044370509070393"><ele>451.0</ele><time>2026-03-30T15:19:29Z</time></trkpt><trkpt lat="42.047622229409875" lon="-0.9046933361713855"><ele>452.0</ele><time>2026-03-30T15:19:30Z</time></trkpt><trkpt lat="42.04778722211121" lon="-0.9049562881699712"><ele>453.0</ele><time>2026-03-30T15:19:31Z</time></trkpt><trkpt lat="42.047957221954476" lon="-0.9052253366877427"><ele>453.0</ele><time>2026-03-30T15:19:32Z</time></trkpt><trkpt lat="42.04812901580904" lon="-0.9054888106863065"><ele>453.0</ele><time>2026-03-30T15:19:33Z</time></trkpt><trkpt lat="42.048294585908046" lon="-0.9057463984705367"><ele>452.5</ele><time>2026-03-30T15:19:34Z</time></trkpt><trkpt lat="42.048456600157834" lon="-0.906004286548976"><ele>452.0</ele><time>2026-03-30T15:19:35Z</time></trkpt><trkpt lat="42.048620420450284" lon="-0.9062613644280848"><ele>452.0</ele><time>2026-03-30T15:19:36Z</time></trkpt><trkpt lat="42.04878582289836" lon="-0.9065145979256298"><ele>452.0</ele><time>2026-03-30T15:19:37Z</time></trkpt><trkpt lat="42.04894959922742" lon="-0.9067644461299428"><ele>452.0</ele><time>2026-03-30T15:19:38Z</time></trkpt><trkpt lat="42.049118029905976" lon="-0.9070108565920667"><ele>452.0</ele><time>2026-03-30T15:19:39Z</time></trkpt><trkpt lat="42.049288576184075" lon="-0.9072540590832504"><ele>451.0</ele><time>2026-03-30T15:19:40Z</time></trkpt><trkpt lat="42.049459543986366" lon="-0.9074997786334834"><ele>450.0</ele><time>2026-03-30T15:19:41Z</time></trkpt><trkpt lat="42.049634324028816" lon="-0.9077427094997129"><ele>450.0</ele><time>2026-03-30T15:19:42Z</time></trkpt><trkpt lat="42.049813738621516" lon="-0.9079908308297853"><ele>450.0</ele><time>2026-03-30T15:19:43Z</time></trkpt><trkpt lat="42.04999834456282" lon="-0.9082447761126805"><ele>450.0</ele><time>2026-03-30T15:19:44Z</time></trkpt><trkpt lat="42.05018924789067" lon="-0.908497132365181"><ele>450.0</ele><time>2026-03-30T15:19:45Z</time></trkpt><trkpt lat="42.050374616361005" lon="-0.9087438523632504"><ele>450.0</ele><time>2026-03-30T15:19:46Z</time></trkpt><trkpt lat="42.05055224374345" lon="-0.9089870707098785"><ele>450.0</ele><time>2026-03-30T15:19:47Z</time></trkpt><trkpt lat="42.05073169746932" lon="-0.9092297335774214"><ele>452.0</ele><time>2026-03-30T15:19:48Z</time></trkpt><trkpt lat="42.05090892530643" lon="-0.9094618004289386"><ele>454.0</ele><time>2026-03-30T15:19:49Z</time></trkpt><trkpt lat="42.05108056036177" lon="-0.9096914892448305"><ele>454.0</ele><time>2026-03-30T15:19:50Z</time></trkpt><trkpt lat="42.05125161475545" lon="-0.9099195399263416"><ele>454.0</ele><time>2026-03-30T15:19:51Z</time></trkpt><trkpt lat="42.051426631879224" lon="-0.9101336672847508"><ele>453.5</ele><time>2026-03-30T15:19:52Z</time></trkpt><trkpt lat="42.05160045081171" lon="-0.9103480068117121"><ele>453.0</ele><time>2026-03-30T15:19:53Z</time></trkpt><trkpt lat="42.05177830159755" lon="-0.910558148798946"><ele>453.0</ele><time>2026-03-30T15:19:54Z</time></trkpt><trkpt lat="42.05196622112531" lon="-0.9107606527475689"><ele>453.0</ele><time>2026-03-30T15:19:55Z</time></trkpt><trkpt lat="42.05215688226323" lon="-0.9109490919136709"><ele>453.0</ele><time>2026-03-30T15:19:56Z</time></trkpt><trkpt lat="42.052353309541964" lon="-0.9111203126769252"><ele>453.0</ele><time>2026-03-30T15:19:57Z</time></trkpt><trkpt lat="42.05255849425057" lon="-0.9112837323388049"><ele>450.5</ele><time>2026-03-30T15:19:58Z</time></trkpt><trkpt lat="42.05277132096354" lon="-0.9114383873971217"><ele>448.0</ele><time>2026-03-30T15:19:59Z</time></trkpt><trkpt lat="42.052988415691374" lon="-0.9115880785267906"><ele>448.0</ele><time>2026-03-30T15:20:00Z</time></trkpt><trkpt lat="42.05320875286363" lon="-0.9117336539503175"><ele>448.0</ele><time>2026-03-30T15:20:01Z</time></trkpt><trkpt lat="42.05343129653197" lon="-0.911872100221038"><ele>446.0</ele><time>2026-03-30T15:20:02Z</time></trkpt><trkpt lat="42.05366038678839" lon="-0.9120083622135163"><ele>444.0</ele><time>2026-03-30T15:20:03Z</time></trkpt><trkpt lat="42.05389270862867" lon="-0.9121447529533957"><ele>444.0</ele><time>2026-03-30T15:20:04Z</time></trkpt><trkpt lat="42.05412648429541" lon="-0.9122809171236832"><ele>444.0</ele><time>2026-03-30T15:20:05Z</time></trkpt><trkpt lat="42.05436029175807" lon="-0.9124184395876909"><ele>444.0</ele><time>2026-03-30T15:20:06Z</time></trkpt><trkpt lat="42.05459698870848" lon="-0.9125626591169221"><ele>444.0</ele><time>2026-03-30T15:20:07Z</time></trkpt><trkpt lat="42.05483877593083" lon="-0.9127007185846002"><ele>442.5</ele><time>2026-03-30T15:20:08Z</time></trkpt><trkpt lat="42.055084360362464" lon="-0.9128303479626155"><ele>441.0</ele><time>2026-03-30T15:20:09Z</time></trkpt><trkpt lat="42.0553292316816" lon="-0.9129544675148442"><ele>441.0</ele><time>2026-03-30T15:20:10Z</time></trkpt><trkpt lat="42.05557501414763" lon="-0.91306435522522"><ele>441.0</ele><time>2026-03-30T15:20:11Z</time></trkpt><trkpt lat="42.0558217728569" lon="-0.9131611041916163"><ele>440.0</ele><time>2026-03-30T15:20:12Z</time></trkpt><trkpt lat="42.05607172975719" lon="-0.9132517218399032"><ele>439.0</ele><time>2026-03-30T15:20:13Z</time></trkpt><trkpt lat="42.05632053355899" lon="-0.913323043901651"><ele>439.0</ele><time>2026-03-30T15:20:14Z</time></trkpt><trkpt lat="42.056569708461794" lon="-0.9133964768707447"><ele>439.0</ele><time>2026-03-30T15:20:15Z</time></trkpt><trkpt lat="42.05682490895021" lon="-0.9134661402357603"><ele>439.0</ele><time>2026-03-30T15:20:16Z</time></trkpt><trkpt lat="42.057086356965044" lon="-0.9135160179366881"><ele>439.0</ele><time>2026-03-30T15:20:17Z</time></trkpt><trkpt lat="42.057348488711774" lon="-0.9135658177430062"><ele>437.5</ele><time>2026-03-30T15:20:18Z</time></trkpt><trkpt lat="42.05760387591466" lon="-0.9136244637441352"><ele>436.0</ele><time>2026-03-30T15:20:19Z</time></trkpt><trkpt lat="42.057853753587715" lon="-0.9136899163965347"><ele>436.0</ele><time>2026-03-30T15:20:20Z</time></trkpt><trkpt lat="42.05810359855625" lon="-0.9137498481647081"><ele>436.0</ele><time>2026-03-30T15:20:21Z</time></trkpt><trkpt lat="42.058356323929885" lon="-0.9137988615423699"><ele>436.0</ele><time>2026-03-30T15:20:22Z</time></trkpt><trkpt lat="42.0586031363478" lon="-0.9138513662105708"><ele>436.0</ele><time>2026-03-30T15:20:23Z</time></trkpt><trkpt lat="42.05884852842108" lon="-0.9139077508834966"><ele>436.0</ele><time>2026-03-30T15:20:24Z</time></trkpt><trkpt lat="42.059088542299136" lon="-0.9139593567443011"><ele>436.0</ele><time>2026-03-30T15:20:25Z</time></trkpt><trkpt lat="42.05932268452842" lon="-0.9140157828837867"><ele>434.5</ele><time>2026-03-30T15:20:26Z</time></trkpt><trkpt lat="42.05955855385801" lon="-0.914068190414087"><ele>433.0</ele><time>2026-03-30T15:20:27Z</time></trkpt><trkpt lat="42.05979485752046" lon="-0.9141186353858336"><ele>432.0</ele><time>2026-03-30T15:20:28Z</time></trkpt><trkpt lat="42.06003603448669" lon="-0.9141776280327047"><ele>431.0</ele><time>2026-03-30T15:20:29Z</time></trkpt><trkpt lat="42.060281826004896" lon="-0.9142385298274575"><ele>431.0</ele><time>2026-03-30T15:20:30Z</time></trkpt><trkpt lat="42.06053265537495" lon="-0.9142975571156308"><ele>431.0</ele><time>2026-03-30T15:20:31Z</time></trkpt><trkpt lat="42.060782511425785" lon="-0.9143539191295931"><ele>431.0</ele><time>2026-03-30T15:20:32Z</time></trkpt><trkpt lat="42.06103052677985" lon="-0.9144221899712793"><ele>431.0</ele><time>2026-03-30T15:20:33Z</time></trkpt><trkpt lat="42.06127699772012" lon="-0.9144854547764171"><ele>431.0</ele><time>2026-03-30T15:20:34Z</time></trkpt><trkpt lat="42.061526884842465" lon="-0.9145337942277304"><ele>431.0</ele><time>2026-03-30T15:20:35Z</time></trkpt><trkpt lat="42.06177738347214" lon="-0.9145852699436431"><ele>430.5</ele><time>2026-03-30T15:20:36Z</time></trkpt><trkpt lat="42.06203025875505" lon="-0.9146431678798244"><ele>430.0</ele><time>2026-03-30T15:20:37Z</time></trkpt><trkpt lat="42.06227992740414" lon="-0.914702156110534"><ele>430.5</ele><time>2026-03-30T15:20:38Z</time></trkpt><trkpt lat="42.06252786953166" lon="-0.9147658249932165"><ele>431.0</ele><time>2026-03-30T15:20:39Z</time></trkpt><trkpt lat="42.06277892237295" lon="-0.9148313028466714"><ele>431.0</ele><time>2026-03-30T15:20:40Z</time></trkpt><trkpt lat="42.063033651419865" lon="-0.9148957932968984"><ele>431.0</ele><time>2026-03-30T15:20:41Z</time></trkpt><trkpt lat="42.063294161291836" lon="-0.9149520563178913"><ele>430.5</ele><time>2026-03-30T15:20:42Z</time></trkpt><trkpt lat="42.06355480898395" lon="-0.9150102474518419"><ele>430.0</ele><time>2026-03-30T15:20:43Z</time></trkpt><trkpt lat="42.063812372366606" lon="-0.9150708089795003"><ele>430.0</ele><time>2026-03-30T15:20:44Z</time></trkpt><trkpt lat="42.064066327910034" lon="-0.9151309891752621"><ele>430.0</ele><time>2026-03-30T15:20:45Z</time></trkpt><trkpt lat="42.064315731995386" lon="-0.915197324131038"><ele>430.5</ele><time>2026-03-30T15:20:46Z</time></trkpt><trkpt lat="42.0645686190642" lon="-0.9152638834584569"><ele>431.0</ele><time>2026-03-30T15:20:47Z</time></trkpt><trkpt lat="42.06482480859639" lon="-0.9153177471357885"><ele>429.0</ele><time>2026-03-30T15:20:48Z</time></trkpt><trkpt lat="42.06507887518017" lon="-0.9153660729768427"><ele>427.0</ele><time>2026-03-30T15:20:49Z</time></trkpt><trkpt lat="42.0653292264064" lon="-0.9154241840259191"><ele>427.0</ele><time>2026-03-30T15:20:50Z</time></trkpt><trkpt lat="42.06557792120406" lon="-0.9154862794993699"><ele>427.0</ele><time>2026-03-30T15:20:51Z</time></trkpt><trkpt lat="42.06582507805374" lon="-0.9155405864724916"><ele>427.0</ele><time>2026-03-30T15:20:52Z</time></trkpt><trkpt lat="42.066069049339625" lon="-0.9155926834700415"><ele>427.0</ele><time>2026-03-30T15:20:53Z</time></trkpt><trkpt lat="42.066306282044124" lon="-0.9156588860573255"><ele>427.0</ele><time>2026-03-30T15:20:54Z</time></trkpt><trkpt lat="42.06654185223431" lon="-0.9157260179512515"><ele>427.0</ele><time>2026-03-30T15:20:55Z</time></trkpt><trkpt lat="42.06677609749889" lon="-0.9157903125250444"><ele>427.0</ele><time>2026-03-30T15:20:56Z</time></trkpt><trkpt lat="42.067006472307426" lon="-0.9158823143933905"><ele>427.0</ele><time>2026-03-30T15:20:57Z</time></trkpt><trkpt lat="42.067238445035436" lon="-0.915972831655059"><ele>426.5</ele><time>2026-03-30T15:20:58Z</time></trkpt><trkpt lat="42.067469603378996" lon="-0.916079266092022"><ele>426.0</ele><time>2026-03-30T15:20:59Z</time></trkpt><trkpt lat="42.06770057471258" lon="-0.9161937448897398"><ele>426.0</ele><time>2026-03-30T15:21:00Z</time></trkpt><trkpt lat="42.06793450141533" lon="-0.9162947822531012"><ele>426.0</ele><time>2026-03-30T15:21:01Z</time></trkpt><trkpt lat="42.06816202998387" lon="-0.9164195331528043"><ele>424.5</ele><time>2026-03-30T15:21:02Z</time></trkpt><trkpt lat="42.06839585160343" lon="-0.9165318629633638"><ele>423.0</ele><time>2026-03-30T15:21:03Z</time></trkpt><trkpt lat="42.0686312208021" lon="-0.916642280585413"><ele>423.0</ele><time>2026-03-30T15:21:04Z</time></trkpt><trkpt lat="42.068869080440784" lon="-0.9167608091083266"><ele>423.0</ele><time>2026-03-30T15:21:05Z</time></trkpt><trkpt lat="42.06910532955835" lon="-0.916879016891003"><ele>422.5</ele><time>2026-03-30T15:21:06Z</time></trkpt><trkpt lat="42.06934193966818" lon="-0.9170060646804549"><ele>422.0</ele><time>2026-03-30T15:21:07Z</time></trkpt><trkpt lat="42.06958220800757" lon="-0.9171213116735971"><ele>422.0</ele><time>2026-03-30T15:21:08Z</time></trkpt><trkpt lat="42.06982278334839" lon="-0.9172317486845548"><ele>422.0</ele><time>2026-03-30T15:21:09Z</time></trkpt><trkpt lat="42.07005880935594" lon="-0.9173641931406852"><ele>421.5</ele><time>2026-03-30T15:21:10Z</time></trkpt><trkpt lat="42.07030543307897" lon="-0.917486472352735"><ele>421.0</ele><time>2026-03-30T15:21:11Z</time></trkpt><trkpt lat="42.070555001145934" lon="-0.9175995217331354"><ele>420.5</ele><time>2026-03-30T15:21:12Z</time></trkpt><trkpt lat="42.07080254296374" lon="-0.9177217635631943"><ele>420.0</ele><time>2026-03-30T15:21:13Z</time></trkpt><trkpt lat="42.07104817781563" lon="-0.9178484752205109"><ele>420.0</ele><time>2026-03-30T15:21:14Z</time></trkpt><trkpt lat="42.07129792136014" lon="-0.9179662439209519"><ele>420.0</ele><time>2026-03-30T15:21:15Z</time></trkpt><trkpt lat="42.07154292111118" lon="-0.9180894624543208"><ele>419.0</ele><time>2026-03-30T15:21:16Z</time></trkpt><trkpt lat="42.07178286109035" lon="-0.9182134746836544"><ele>418.0</ele><time>2026-03-30T15:21:17Z</time></trkpt><trkpt lat="42.07202420352902" lon="-0.9183336077446914"><ele>417.5</ele><time>2026-03-30T15:21:18Z</time></trkpt><trkpt lat="42.07226043914956" lon="-0.91846242077966"><ele>417.0</ele><time>2026-03-30T15:21:19Z</time></trkpt><trkpt lat="42.07250334793766" lon="-0.9185803532438614"><ele>416.0</ele><time>2026-03-30T15:21:20Z</time></trkpt><trkpt lat="42.07274954321727" lon="-0.9186906332503614"><ele>415.0</ele><time>2026-03-30T15:21:21Z</time></trkpt><trkpt lat="42.07298438413641" lon="-0.9188086859498553"><ele>415.0</ele><time>2026-03-30T15:21:22Z</time></trkpt><trkpt lat="42.07322005495628" lon="-0.9189263069109428"><ele>415.0</ele><time>2026-03-30T15:21:23Z</time></trkpt><trkpt lat="42.073451900530735" lon="-0.9190544570812602"><ele>414.5</ele><time>2026-03-30T15:21:24Z</time></trkpt><trkpt lat="42.073686435098686" lon="-0.9191768659177986"><ele>414.0</ele><time>2026-03-30T15:21:25Z</time></trkpt><trkpt lat="42.073926074914226" lon="-0.9192923705446168"><ele>412.0</ele><time>2026-03-30T15:21:26Z</time></trkpt><trkpt lat="42.07416708573414" lon="-0.9194143864680411"><ele>410.0</ele><time>2026-03-30T15:21:27Z</time></trkpt><trkpt lat="42.07440981461402" lon="-0.9195354937707463"><ele>410.0</ele><time>2026-03-30T15:21:28Z</time></trkpt><trkpt lat="42.07465015255622" lon="-0.9196461820518183"><ele>410.0</ele><time>2026-03-30T15:21:29Z</time></trkpt><trkpt lat="42.074887494475114" lon="-0.919766369408435"><ele>411.5</ele><time>2026-03-30T15:21:30Z</time></trkpt><trkpt lat="42.075118124934214" lon="-0.9198968471379072"><ele>413.0</ele><time>2026-03-30T15:21:31Z</time></trkpt><trkpt lat="42.07535338080096" lon="-0.9200170965565491"><ele>412.0</ele><time>2026-03-30T15:21:32Z</time></trkpt><trkpt lat="42.07559041713416" lon="-0.9201187943223605"><ele>411.0</ele><time>2026-03-30T15:21:33Z</time></trkpt><trkpt lat="42.07582620159999" lon="-0.9202356781991644"><ele>411.0</ele><time>2026-03-30T15:21:34Z</time></trkpt><trkpt lat="42.076058265297654" lon="-0.9203551626449842"><ele>411.0</ele><time>2026-03-30T15:21:35Z</time></trkpt><trkpt lat="42.07629195223038" lon="-0.9204714693453635"><ele>411.0</ele><time>2026-03-30T15:21:36Z</time></trkpt><trkpt lat="42.07652403648056" lon="-0.9205857045894262"><ele>411.0</ele><time>2026-03-30T15:21:37Z</time></trkpt><trkpt lat="42.07675636190037" lon="-0.9207081160542774"><ele>410.5</ele><time>2026-03-30T15:21:38Z</time></trkpt><trkpt lat="42.0769892916688" lon="-0.9208266504661963"><ele>410.0</ele><time>2026-03-30T15:21:39Z</time></trkpt><trkpt lat="42.077224625955765" lon="-0.9209392567852045"><ele>409.5</ele><time>2026-03-30T15:21:40Z</time></trkpt><trkpt lat="42.07745998038054" lon="-0.921063720780573"><ele>409.0</ele><time>2026-03-30T15:21:41Z</time></trkpt><trkpt lat="42.077697489432516" lon="-0.9211805036602931"><ele>409.0</ele><time>2026-03-30T15:21:42Z</time></trkpt><trkpt lat="42.077941265777625" lon="-0.9212986043507417"><ele>409.0</ele><time>2026-03-30T15:21:43Z</time></trkpt><trkpt lat="42.07818754824468" lon="-0.9214265040266734"><ele>409.0</ele><time>2026-03-30T15:21:44Z</time></trkpt><trkpt lat="42.078434366404366" lon="-0.9215526263327294"><ele>409.0</ele><time>2026-03-30T15:21:45Z</time></trkpt><trkpt lat="42.07868024631007" lon="-0.9216700735698315"><ele>407.5</ele><time>2026-03-30T15:21:46Z</time></trkpt><trkpt lat="42.07892871662142" lon="-0.9217892554876894"><ele>406.0</ele><time>2026-03-30T15:21:47Z</time></trkpt><trkpt lat="42.079171144054314" lon="-0.921917155073514"><ele>406.0</ele><time>2026-03-30T15:21:48Z</time></trkpt><trkpt lat="42.07940865251089" lon="-0.9220521696093821"><ele>406.0</ele><time>2026-03-30T15:21:49Z</time></trkpt><trkpt lat="42.079637739375755" lon="-0.9221935013613052"><ele>406.0</ele><time>2026-03-30T15:21:50Z</time></trkpt><trkpt lat="42.07985111964161" lon="-0.9223500018592962"><ele>406.0</ele><time>2026-03-30T15:21:51Z</time></trkpt><trkpt lat="42.08005288975604" lon="-0.9225250241683255"><ele>405.0</ele><time>2026-03-30T15:21:52Z</time></trkpt><trkpt lat="42.08024827281219" lon="-0.9227111702117317"><ele>404.0</ele><time>2026-03-30T15:21:53Z</time></trkpt><trkpt lat="42.08044101972378" lon="-0.9229090560092202"><ele>404.0</ele><time>2026-03-30T15:21:54Z</time></trkpt><trkpt lat="42.08064307188233" lon="-0.9231151480385422"><ele>404.0</ele><time>2026-03-30T15:21:55Z</time></trkpt><trkpt lat="42.08083280324062" lon="-0.9233064373896298"><ele>403.0</ele><time>2026-03-30T15:21:56Z</time></trkpt><trkpt lat="42.0810239903822" lon="-0.9234906028768076"><ele>402.0</ele><time>2026-03-30T15:21:57Z</time></trkpt><trkpt lat="42.081219310215744" lon="-0.9236661151953577"><ele>402.0</ele><time>2026-03-30T15:21:58Z</time></trkpt><trkpt lat="42.0814234607303" lon="-0.9238251253258761"><ele>402.0</ele><time>2026-03-30T15:21:59Z</time></trkpt><trkpt lat="42.081639605297376" lon="-0.9239622052316712"><ele>402.5</ele><time>2026-03-30T15:22:00Z</time></trkpt><trkpt lat="42.0818640032454" lon="-0.924088286009216"><ele>403.0</ele><time>2026-03-30T15:22:01Z</time></trkpt><trkpt lat="42.082099897684486" lon="-0.9241939181633817"><ele>402.0</ele><time>2026-03-30T15:22:02Z</time></trkpt><trkpt lat="42.08235787006373" lon="-0.9242791150204007"><ele>401.0</ele><time>2026-03-30T15:22:03Z</time></trkpt><trkpt lat="42.08262609545978" lon="-0.9243445355831675"><ele>400.5</ele><time>2026-03-30T15:22:04Z</time></trkpt><trkpt lat="42.08288841240994" lon="-0.9243866482475143"><ele>400.0</ele><time>2026-03-30T15:22:05Z</time></trkpt><trkpt lat="42.08314663178835" lon="-0.924428780663318"><ele>396.5</ele><time>2026-03-30T15:22:06Z</time></trkpt><trkpt lat="42.08339374177038" lon="-0.924477295171486"><ele>393.0</ele><time>2026-03-30T15:22:07Z</time></trkpt><trkpt lat="42.0836313601817" lon="-0.9245316046412936"><ele>393.0</ele><time>2026-03-30T15:22:08Z</time></trkpt><trkpt lat="42.08385993290001" lon="-0.9246134504880585"><ele>393.0</ele><time>2026-03-30T15:22:09Z</time></trkpt><trkpt lat="42.08408782605851" lon="-0.9247093710450675"><ele>393.0</ele><time>2026-03-30T15:22:10Z</time></trkpt><trkpt lat="42.0843176423853" lon="-0.9248162406105765"><ele>393.0</ele><time>2026-03-30T15:22:11Z</time></trkpt><trkpt lat="42.08455802507876" lon="-0.9249344292336972"><ele>393.0</ele><time>2026-03-30T15:22:12Z</time></trkpt><trkpt lat="42.08480558815845" lon="-0.92505113655378"><ele>393.0</ele><time>2026-03-30T15:22:13Z</time></trkpt><trkpt lat="42.08505660405197" lon="-0.9251721658936208"><ele>394.5</ele><time>2026-03-30T15:22:14Z</time></trkpt><trkpt lat="42.08530238710285" lon="-0.9252929572717056"><ele>396.0</ele><time>2026-03-30T15:22:15Z</time></trkpt><trkpt lat="42.08554533654996" lon="-0.9254142590206602"><ele>396.0</ele><time>2026-03-30T15:22:16Z</time></trkpt><trkpt lat="42.08578835117704" lon="-0.9255371525728112"><ele>396.0</ele><time>2026-03-30T15:22:17Z</time></trkpt><trkpt lat="42.08603825593021" lon="-0.9256467340042399"><ele>396.0</ele><time>2026-03-30T15:22:18Z</time></trkpt><trkpt lat="42.086278371750005" lon="-0.925755547803361"><ele>396.0</ele><time>2026-03-30T15:22:19Z</time></trkpt><trkpt lat="42.086514121889586" lon="-0.9258715729398271"><ele>396.0</ele><time>2026-03-30T15:22:20Z</time></trkpt><trkpt lat="42.08674813208261" lon="-0.9259886307193269"><ele>396.0</ele><time>2026-03-30T15:22:21Z</time></trkpt><trkpt lat="42.08697915236686" lon="-0.9261064609741074"><ele>396.0</ele><time>2026-03-30T15:22:22Z</time></trkpt><trkpt lat="42.087214268860684" lon="-0.9262141565415398"><ele>396.0</ele><time>2026-03-30T15:22:23Z</time></trkpt><trkpt lat="42.087451745005836" lon="-0.9263154877325949"><ele>396.5</ele><time>2026-03-30T15:22:24Z</time></trkpt><trkpt lat="42.08768885490764" lon="-0.9264322858158107"><ele>397.0</ele><time>2026-03-30T15:22:25Z</time></trkpt><trkpt lat="42.08792684263654" lon="-0.9265432386682129"><ele>397.0</ele><time>2026-03-30T15:22:26Z</time></trkpt><trkpt lat="42.08816603742476" lon="-0.9266643378375297"><ele>397.0</ele><time>2026-03-30T15:22:27Z</time></trkpt><trkpt lat="42.08840769336951" lon="-0.9267910001763753"><ele>397.5</ele><time>2026-03-30T15:22:28Z</time></trkpt><trkpt lat="42.08865317147968" lon="-0.926897678979052"><ele>398.0</ele><time>2026-03-30T15:22:29Z</time></trkpt><trkpt lat="42.08889760835418" lon="-0.9270093308525771"><ele>398.5</ele><time>2026-03-30T15:22:30Z</time></trkpt><trkpt lat="42.08914308707644" lon="-0.9271271819091731"><ele>399.0</ele><time>2026-03-30T15:22:31Z</time></trkpt><trkpt lat="42.0893930660405" lon="-0.9272469820792956"><ele>399.0</ele><time>2026-03-30T15:22:32Z</time></trkpt><trkpt lat="42.08964253107696" lon="-0.9273630250935065"><ele>399.0</ele><time>2026-03-30T15:22:33Z</time></trkpt><trkpt lat="42.089893662829624" lon="-0.9274872720605856"><ele>399.5</ele><time>2026-03-30T15:22:34Z</time></trkpt><trkpt lat="42.09014470704483" lon="-0.9276039267055349"><ele>400.0</ele><time>2026-03-30T15:22:35Z</time></trkpt><trkpt lat="42.09038985942145" lon="-0.9277203261318888"><ele>400.0</ele><time>2026-03-30T15:22:36Z</time></trkpt><trkpt lat="42.09063398466424" lon="-0.9278360074786856"><ele>400.0</ele><time>2026-03-30T15:22:37Z</time></trkpt><trkpt lat="42.090876199704475" lon="-0.9279482483958735"><ele>400.0</ele><time>2026-03-30T15:22:38Z</time></trkpt><trkpt lat="42.09111625562535" lon="-0.9280658918559569"><ele>400.0</ele><time>2026-03-30T15:22:39Z</time></trkpt><trkpt lat="42.09135485542945" lon="-0.9281796276888012"><ele>400.0</ele><time>2026-03-30T15:22:40Z</time></trkpt><trkpt lat="42.09159050040188" lon="-0.9282885770893036"><ele>400.0</ele><time>2026-03-30T15:22:41Z</time></trkpt><trkpt lat="42.091825621198424" lon="-0.92840876778985"><ele>400.0</ele><time>2026-03-30T15:22:42Z</time></trkpt><trkpt lat="42.09206426381832" lon="-0.9285186152827927"><ele>400.0</ele><time>2026-03-30T15:22:43Z</time></trkpt><trkpt lat="42.09230023236373" lon="-0.9286278128510229"><ele>399.5</ele><time>2026-03-30T15:22:44Z</time></trkpt><trkpt lat="42.09253027303579" lon="-0.9287556428141369"><ele>399.0</ele><time>2026-03-30T15:22:45Z</time></trkpt><trkpt lat="42.09276620287054" lon="-0.9288752454003962"><ele>399.0</ele><time>2026-03-30T15:22:46Z</time></trkpt><trkpt lat="42.09300767673234" lon="-0.9289810841494035"><ele>399.0</ele><time>2026-03-30T15:22:47Z</time></trkpt><trkpt lat="42.09325468627459" lon="-0.9290874688812643"><ele>399.5</ele><time>2026-03-30T15:22:48Z</time></trkpt><trkpt lat="42.093504968206055" lon="-0.9292055624651971"><ele>400.0</ele><time>2026-03-30T15:22:49Z</time></trkpt><trkpt lat="42.09375725128553" lon="-0.9293060569558363"><ele>400.5</ele><time>2026-03-30T15:22:50Z</time></trkpt><trkpt lat="42.09401217489514" lon="-0.9294003634745087"><ele>401.0</ele><time>2026-03-30T15:22:51Z</time></trkpt><trkpt lat="42.09426872220026" lon="-0.9294941075546358"><ele>402.0</ele><time>2026-03-30T15:22:52Z</time></trkpt><trkpt lat="42.09452895379138" lon="-0.9295849764347377"><ele>403.0</ele><time>2026-03-30T15:22:53Z</time></trkpt><trkpt lat="42.094790520952415" lon="-0.9296550799007355"><ele>402.5</ele><time>2026-03-30T15:22:54Z</time></trkpt><trkpt lat="42.09505098145412" lon="-0.9297187782350501"><ele>402.0</ele><time>2026-03-30T15:22:55Z</time></trkpt><trkpt lat="42.09530603555797" lon="-0.9297867119761936"><ele>402.0</ele><time>2026-03-30T15:22:56Z</time></trkpt><trkpt lat="42.095563384192864" lon="-0.9298608353561865"><ele>402.0</ele><time>2026-03-30T15:22:57Z</time></trkpt><trkpt lat="42.095819551698625" lon="-0.9299254054358458"><ele>403.5</ele><time>2026-03-30T15:22:58Z</time></trkpt><trkpt lat="42.09607584887759" lon="-0.9299973225734738"><ele>405.0</ele><time>2026-03-30T15:22:59Z</time></trkpt><trkpt lat="42.096324752039386" lon="-0.9300683575743816"><ele>405.5</ele><time>2026-03-30T15:23:00Z</time></trkpt><trkpt lat="42.096576074994054" lon="-0.9301438518942092"><ele>406.0</ele><time>2026-03-30T15:23:01Z</time></trkpt><trkpt lat="42.09683310935475" lon="-0.9302140365310382"><ele>407.0</ele><time>2026-03-30T15:23:02Z</time></trkpt><trkpt lat="42.09709314777202" lon="-0.9302795025806306"><ele>408.0</ele><time>2026-03-30T15:23:03Z</time></trkpt><trkpt lat="42.09729502340289" lon="-0.930334995923172"><ele>409.0</ele><time>2026-03-30T15:23:04Z</time></trkpt><trkpt lat="42.09754111885709" lon="-0.9304068327021736"><ele>410.0</ele><time>2026-03-30T15:23:05Z</time></trkpt><trkpt lat="42.09778636678764" lon="-0.9304644026358821"><ele>410.0</ele><time>2026-03-30T15:23:06Z</time></trkpt><trkpt lat="42.0980280601325" lon="-0.9305261468791511"><ele>410.0</ele><time>2026-03-30T15:23:07Z</time></trkpt><trkpt lat="42.09826318376952" lon="-0.9305951575732372"><ele>410.5</ele><time>2026-03-30T15:23:08Z</time></trkpt><trkpt lat="42.09850453250488" lon="-0.9306591901187198"><ele>411.0</ele><time>2026-03-30T15:23:09Z</time></trkpt><trkpt lat="42.098749289410705" lon="-0.9307164254476955"><ele>411.0</ele><time>2026-03-30T15:23:10Z</time></trkpt><trkpt lat="42.098994938467776" lon="-0.9307956085123599"><ele>411.0</ele><time>2026-03-30T15:23:11Z</time></trkpt><trkpt lat="42.099245866581235" lon="-0.9308627571820479"><ele>411.5</ele><time>2026-03-30T15:23:12Z</time></trkpt><trkpt lat="42.099501004452875" lon="-0.9309254386633805"><ele>412.0</ele><time>2026-03-30T15:23:13Z</time></trkpt><trkpt lat="42.099760157199185" lon="-0.930995512473405"><ele>412.5</ele><time>2026-03-30T15:23:14Z</time></trkpt><trkpt lat="42.10002402666637" lon="-0.9310625729240692"><ele>413.0</ele><time>2026-03-30T15:23:15Z</time></trkpt><trkpt lat="42.10029040133514" lon="-0.9311291991903677"><ele>413.0</ele><time>2026-03-30T15:23:16Z</time></trkpt><trkpt lat="42.10055968016806" lon="-0.9312130067749549"><ele>413.0</ele><time>2026-03-30T15:23:17Z</time></trkpt><trkpt lat="42.10083194768839" lon="-0.9312895528453224"><ele>413.0</ele><time>2026-03-30T15:23:18Z</time></trkpt><trkpt lat="42.10109102990881" lon="-0.9313507618512837"><ele>413.0</ele><time>2026-03-30T15:23:19Z</time></trkpt><trkpt lat="42.10135493416188" lon="-0.9314261464128999"><ele>414.0</ele><time>2026-03-30T15:23:20Z</time></trkpt><trkpt lat="42.10161368347016" lon="-0.9314923663813647"><ele>415.0</ele><time>2026-03-30T15:23:21Z</time></trkpt><trkpt lat="42.10186988667227" lon="-0.9315522717256561"><ele>415.0</ele><time>2026-03-30T15:23:22Z</time></trkpt><trkpt lat="42.102121806827874" lon="-0.9316233165413764"><ele>415.0</ele><time>2026-03-30T15:23:23Z</time></trkpt><trkpt lat="42.10237689041437" lon="-0.9316841546232311"><ele>415.0</ele><time>2026-03-30T15:23:24Z</time></trkpt><trkpt lat="42.102636006390775" lon="-0.9317334233432953"><ele>415.0</ele><time>2026-03-30T15:23:25Z</time></trkpt><trkpt lat="42.102890436600035" lon="-0.9317815856344075"><ele>415.0</ele><time>2026-03-30T15:23:26Z</time></trkpt><trkpt lat="42.10314445848925" lon="-0.9318207165294125"><ele>415.0</ele><time>2026-03-30T15:23:27Z</time></trkpt><trkpt lat="42.103396251079225" lon="-0.931853596534686"><ele>417.0</ele><time>2026-03-30T15:23:28Z</time></trkpt><trkpt lat="42.10365035394163" lon="-0.9318893660369231"><ele>419.0</ele><time>2026-03-30T15:23:29Z</time></trkpt><trkpt lat="42.10390491115579" lon="-0.9319142369331823"><ele>420.0</ele><time>2026-03-30T15:23:30Z</time></trkpt><trkpt lat="42.10415652236472" lon="-0.9319394266394265"><ele>421.0</ele><time>2026-03-30T15:23:31Z</time></trkpt><trkpt lat="42.10440812092286" lon="-0.931978043801102"><ele>421.0</ele><time>2026-03-30T15:23:32Z</time></trkpt><trkpt lat="42.10466073933723" lon="-0.9320114451965337"><ele>421.0</ele><time>2026-03-30T15:23:33Z</time></trkpt><trkpt lat="42.10491455922203" lon="-0.9320369935119833"><ele>421.5</ele><time>2026-03-30T15:23:34Z</time></trkpt><trkpt lat="42.105169452349045" lon="-0.9320606057585712"><ele>422.0</ele><time>2026-03-30T15:23:35Z</time></trkpt><trkpt lat="42.10542190780795" lon="-0.9320883477795888"><ele>422.0</ele><time>2026-03-30T15:23:36Z</time></trkpt><trkpt lat="42.10567445830704" lon="-0.9321219201714064"><ele>422.0</ele><time>2026-03-30T15:23:37Z</time></trkpt><trkpt lat="42.10592670004968" lon="-0.9321529010979338"><ele>422.0</ele><time>2026-03-30T15:23:38Z</time></trkpt><trkpt lat="42.10618002102831" lon="-0.9321888349826154"><ele>422.0</ele><time>2026-03-30T15:23:39Z</time></trkpt><trkpt lat="42.10643500379341" lon="-0.9322223558590875"><ele>422.5</ele><time>2026-03-30T15:23:40Z</time></trkpt><trkpt lat="42.106686650786514" lon="-0.9322474422249079"><ele>423.0</ele><time>2026-03-30T15:23:41Z</time></trkpt><trkpt lat="42.10694099983073" lon="-0.9322756988887001"><ele>423.0</ele><time>2026-03-30T15:23:42Z</time></trkpt><trkpt lat="42.10719069353906" lon="-0.9323042883294325"><ele>423.0</ele><time>2026-03-30T15:23:43Z</time></trkpt><trkpt lat="42.107436340853276" lon="-0.9323345458307051"><ele>424.5</ele><time>2026-03-30T15:23:44Z</time></trkpt><trkpt lat="42.10768392844263" lon="-0.9323672874349286"><ele>426.0</ele><time>2026-03-30T15:23:45Z</time></trkpt><trkpt lat="42.10793158429495" lon="-0.9323971064048147"><ele>426.0</ele><time>2026-03-30T15:23:46Z</time></trkpt><trkpt lat="42.10818048667119" lon="-0.9324233269184939"><ele>426.0</ele><time>2026-03-30T15:23:47Z</time></trkpt><trkpt lat="42.10842713546429" lon="-0.9324500855639143"><ele>426.0</ele><time>2026-03-30T15:23:48Z</time></trkpt><trkpt lat="42.10867586200992" lon="-0.9324810489775281"><ele>426.0</ele><time>2026-03-30T15:23:49Z</time></trkpt><trkpt lat="42.108924023535025" lon="-0.932510873390018"><ele>425.0</ele><time>2026-03-30T15:23:50Z</time></trkpt><trkpt lat="42.1091732266513" lon="-0.9325430640216916"><ele>424.0</ele><time>2026-03-30T15:23:51Z</time></trkpt><trkpt lat="42.10942342228165" lon="-0.9325767176616023"><ele>424.0</ele><time>2026-03-30T15:23:52Z</time></trkpt><trkpt lat="42.10967779745469" lon="-0.9326082253631655"><ele>424.0</ele><time>2026-03-30T15:23:53Z</time></trkpt><trkpt lat="42.10993586250046" lon="-0.9326368063958619"><ele>423.0</ele><time>2026-03-30T15:23:54Z</time></trkpt><trkpt lat="42.11019493187401" lon="-0.9326649370014188"><ele>422.0</ele><time>2026-03-30T15:23:55Z</time></trkpt><trkpt lat="42.110452895684354" lon="-0.9326933530633136"><ele>422.0</ele><time>2026-03-30T15:23:56Z</time></trkpt><trkpt lat="42.11070699289116" lon="-0.932724622756911"><ele>422.0</ele><time>2026-03-30T15:23:57Z</time></trkpt><trkpt lat="42.11096763948946" lon="-0.9327650992605215"><ele>423.5</ele><time>2026-03-30T15:23:58Z</time></trkpt><trkpt lat="42.1112325298951" lon="-0.9328079925661164"><ele>425.0</ele><time>2026-03-30T15:23:59Z</time></trkpt><trkpt lat="42.1114970094301" lon="-0.9328420272615993"><ele>426.0</ele><time>2026-03-30T15:24:00Z</time></trkpt><trkpt lat="42.111764227170355" lon="-0.9328842503781652"><ele>427.0</ele><time>2026-03-30T15:24:01Z</time></trkpt><trkpt lat="42.11202865060423" lon="-0.9329459494046968"><ele>427.0</ele><time>2026-03-30T15:24:02Z</time></trkpt><trkpt lat="42.112283425291295" lon="-0.9330210256594947"><ele>427.0</ele><time>2026-03-30T15:24:03Z</time></trkpt><trkpt lat="42.11253080691382" lon="-0.9331062054346707"><ele>427.5</ele><time>2026-03-30T15:24:04Z</time></trkpt><trkpt lat="42.11278703417831" lon="-0.9332016131615984"><ele>428.0</ele><time>2026-03-30T15:24:05Z</time></trkpt><trkpt lat="42.1130372272751" lon="-0.9332997769604484"><ele>426.5</ele><time>2026-03-30T15:24:06Z</time></trkpt><trkpt lat="42.11328118859218" lon="-0.9334049333733966"><ele>425.0</ele><time>2026-03-30T15:24:07Z</time></trkpt><trkpt lat="42.11351999787491" lon="-0.9335102630728707"><ele>425.0</ele><time>2026-03-30T15:24:08Z</time></trkpt><trkpt lat="42.11374788462868" lon="-0.9336143248440374"><ele>425.0</ele><time>2026-03-30T15:24:09Z</time></trkpt><trkpt lat="42.11396888201324" lon="-0.9337165495287818"><ele>425.0</ele><time>2026-03-30T15:24:10Z</time></trkpt><trkpt lat="42.114192309548976" lon="-0.9338087270035753"><ele>425.0</ele><time>2026-03-30T15:24:11Z</time></trkpt><trkpt lat="42.11440003831658" lon="-0.9338905012476693"><ele>425.0</ele><time>2026-03-30T15:24:12Z</time></trkpt><trkpt lat="42.11459778562063" lon="-0.9339559334016891"><ele>425.0</ele><time>2026-03-30T15:24:13Z</time></trkpt><trkpt lat="42.11479692219548" lon="-0.9340113444109215"><ele>425.0</ele><time>2026-03-30T15:24:14Z</time></trkpt><trkpt lat="42.114973865471455" lon="-0.9340620621938976"><ele>426.0</ele><time>2026-03-30T15:24:15Z</time></trkpt><trkpt lat="42.11513382045962" lon="-0.9341088498311053"><ele>427.0</ele><time>2026-03-30T15:24:16Z</time></trkpt><trkpt lat="42.11528056706795" lon="-0.9341494406718716"><ele>428.0</ele><time>2026-03-30T15:24:17Z</time></trkpt><trkpt lat="42.11544732562244" lon="-0.9341455581063064"><ele>428.0</ele><time>2026-03-30T15:24:18Z</time></trkpt><trkpt lat="42.115528848530005" lon="-0.9341383132409893"><ele>427.99999999999994</ele><time>2026-03-30T15:24:19Z</time></trkpt><trkpt lat="42.1156178615223" lon="-0.9340231711182492"><ele>427.99999999999994</ele><time>2026-03-30T15:24:20Z</time></trkpt><trkpt lat="42.11570521338175" lon="-0.9339975350237254"><ele>428.0</ele><time>2026-03-30T15:24:21Z</time></trkpt><trkpt lat="42.11578859655659" lon="-0.9339590634573098"><ele>428.0</ele><time>2026-03-30T15:24:22Z</time></trkpt><trkpt lat="42.11588133349622" lon="-0.9340015834228763"><ele>428.0</ele><time>2026-03-30T15:24:23Z</time></trkpt><trkpt lat="42.11594812170322" lon="-0.9341151312824526"><ele>427.99999999999994</ele><time>2026-03-30T15:24:24Z</time></trkpt><trkpt lat="42.11596779304753" lon="-0.9342592010663081"><ele>427.99999999999994</ele><time>2026-03-30T15:24:25Z</time></trkpt><trkpt lat="42.11593797310773" lon="-0.93440019065975"><ele>428.0</ele><time>2026-03-30T15:24:26Z</time></trkpt><trkpt lat="42.115859155170554" lon="-0.9345178632851835"><ele>428.0</ele><time>2026-03-30T15:24:27Z</time></trkpt><trkpt lat="42.1157372222162" lon="-0.934568906008455"><ele>427.0</ele><time>2026-03-30T15:24:28Z</time></trkpt><trkpt lat="42.11563078852584" lon="-0.9346260808404697"><ele>426.0</ele><time>2026-03-30T15:24:29Z</time></trkpt><trkpt lat="42.115649692735644" lon="-0.9349389967782286"><ele>425.0</ele><time>2026-03-30T15:24:30Z</time></trkpt><trkpt lat="42.1156187183735" lon="-0.9351604941507411"><ele>424.66666666666663</ele><time>2026-03-30T15:24:31Z</time></trkpt><trkpt lat="42.115607807281854" lon="-0.9354150699015731"><ele>424.33333333333337</ele><time>2026-03-30T15:24:32Z</time></trkpt><trkpt lat="42.115590394619204" lon="-0.9356658460814135"><ele>424.0</ele><time>2026-03-30T15:24:33Z</time></trkpt><trkpt lat="42.11556330408609" lon="-0.9359094095700783"><ele>423.0</ele><time>2026-03-30T15:24:34Z</time></trkpt><trkpt lat="42.115535626689464" lon="-0.9361559914148192"><ele>422.0</ele><time>2026-03-30T15:24:35Z</time></trkpt><trkpt lat="42.11551304755299" lon="-0.9364035340366815"><ele>421.0</ele><time>2026-03-30T15:24:36Z</time></trkpt><trkpt lat="42.11549041055274" lon="-0.9366527733959233"><ele>420.6666666666667</ele><time>2026-03-30T15:24:37Z</time></trkpt><trkpt lat="42.11545948894353" lon="-0.9369112242031696"><ele>420.33333333333337</ele><time>2026-03-30T15:24:38Z</time></trkpt><trkpt lat="42.11541748422432" lon="-0.9372000468441228"><ele>420.0</ele><time>2026-03-30T15:24:39Z</time></trkpt><trkpt lat="42.11538429377281" lon="-0.9375196416632109"><ele>419.66666666666663</ele><time>2026-03-30T15:24:40Z</time></trkpt><trkpt lat="42.11535625309843" lon="-0.9378086112028239"><ele>419.3333333333333</ele><time>2026-03-30T15:24:41Z</time></trkpt><trkpt lat="42.1153242524084" lon="-0.9380958027391876"><ele>419.0</ele><time>2026-03-30T15:24:42Z</time></trkpt><trkpt lat="42.115291010258886" lon="-0.9383777404791758"><ele>418.66666666666663</ele><time>2026-03-30T15:24:43Z</time></trkpt><trkpt lat="42.11526036522336" lon="-0.9386570874877976"><ele>418.33333333333337</ele><time>2026-03-30T15:24:44Z</time></trkpt><trkpt lat="42.11523224577105" lon="-0.9389471063247831"><ele>418.0</ele><time>2026-03-30T15:24:45Z</time></trkpt><trkpt lat="42.11519858934889" lon="-0.9392528818544074"><ele>418.0</ele><time>2026-03-30T15:24:46Z</time></trkpt><trkpt lat="42.11516349111361" lon="-0.9395625316007082"><ele>418.0</ele><time>2026-03-30T15:24:47Z</time></trkpt><trkpt lat="42.11513074339123" lon="-0.9398771031745486"><ele>417.5</ele><time>2026-03-30T15:24:48Z</time></trkpt><trkpt lat="42.11509710242836" lon="-0.9401933531233134"><ele>417.0</ele><time>2026-03-30T15:24:49Z</time></trkpt><trkpt lat="42.11506239506413" lon="-0.9405122674569656"><ele>417.0</ele><time>2026-03-30T15:24:50Z</time></trkpt><trkpt lat="42.115027661870116" lon="-0.9408380017379212"><ele>417.0</ele><time>2026-03-30T15:24:51Z</time></trkpt><trkpt lat="42.11499427777106" lon="-0.9411628643843051"><ele>417.0</ele><time>2026-03-30T15:24:52Z</time></trkpt><trkpt lat="42.11496099097743" lon="-0.9414899569889726"><ele>417.0</ele><time>2026-03-30T15:24:53Z</time></trkpt><trkpt lat="42.11492459764764" lon="-0.9418161766528104"><ele>415.5</ele><time>2026-03-30T15:24:54Z</time></trkpt><trkpt lat="42.11488634611983" lon="-0.9421426809170127"><ele>414.0</ele><time>2026-03-30T15:24:55Z</time></trkpt><trkpt lat="42.11485027435741" lon="-0.942459417436004"><ele>413.0</ele><time>2026-03-30T15:24:56Z</time></trkpt><trkpt lat="42.11481401449595" lon="-0.942778184445035"><ele>412.0</ele><time>2026-03-30T15:24:57Z</time></trkpt><trkpt lat="42.11478064282814" lon="-0.9431000969697585"><ele>412.0</ele><time>2026-03-30T15:24:58Z</time></trkpt><trkpt lat="42.11474496567401" lon="-0.9434284425204424"><ele>412.0</ele><time>2026-03-30T15:24:59Z</time></trkpt><trkpt lat="42.11470810343992" lon="-0.9437536817298214"><ele>412.0</ele><time>2026-03-30T15:25:00Z</time></trkpt><trkpt lat="42.11467157049166" lon="-0.9440780608641753"><ele>412.0</ele><time>2026-03-30T15:25:01Z</time></trkpt><trkpt lat="42.11463310261727" lon="-0.9443957455110482"><ele>411.0</ele><time>2026-03-30T15:25:02Z</time></trkpt><trkpt lat="42.11458295614805" lon="-0.9447040758592857"><ele>410.0</ele><time>2026-03-30T15:25:03Z</time></trkpt><trkpt lat="42.11451810052452" lon="-0.9450029863109781"><ele>410.0</ele><time>2026-03-30T15:25:04Z</time></trkpt><trkpt lat="42.11443472891925" lon="-0.9452943982214288"><ele>410.0</ele><time>2026-03-30T15:25:05Z</time></trkpt><trkpt lat="42.11432603343246" lon="-0.9455723096314659"><ele>410.0</ele><time>2026-03-30T15:25:06Z</time></trkpt><trkpt lat="42.11420979559631" lon="-0.945846548155533"><ele>410.0</ele><time>2026-03-30T15:25:07Z</time></trkpt><trkpt lat="42.11407362617177" lon="-0.9461136719754796"><ele>411.5</ele><time>2026-03-30T15:25:08Z</time></trkpt><trkpt lat="42.1139253716707" lon="-0.9463760923581838"><ele>413.0</ele><time>2026-03-30T15:25:09Z</time></trkpt><trkpt lat="42.1137583092226" lon="-0.946622830243452"><ele>414.0</ele><time>2026-03-30T15:25:10Z</time></trkpt><trkpt lat="42.11358121854669" lon="-0.9468535870301086"><ele>415.0</ele><time>2026-03-30T15:25:11Z</time></trkpt><trkpt lat="42.113390515761104" lon="-0.9470690475071403"><ele>414.5</ele><time>2026-03-30T15:25:12Z</time></trkpt><trkpt lat="42.11319002226828" lon="-0.9472699178620383"><ele>414.0</ele><time>2026-03-30T15:25:13Z</time></trkpt><trkpt lat="42.11299479005174" lon="-0.947487538080426"><ele>415.5</ele><time>2026-03-30T15:25:14Z</time></trkpt><trkpt lat="42.11279426852631" lon="-0.947702348491247"><ele>417.0</ele><time>2026-03-30T15:25:15Z</time></trkpt><trkpt lat="42.112586833586974" lon="-0.9479091213562374"><ele>416.0</ele><time>2026-03-30T15:25:16Z</time></trkpt><trkpt lat="42.11238471715773" lon="-0.9481306838827851"><ele>415.0</ele><time>2026-03-30T15:25:17Z</time></trkpt><trkpt lat="42.112190298087945" lon="-0.9483649271291329"><ele>415.5</ele><time>2026-03-30T15:25:18Z</time></trkpt><trkpt lat="42.11201279212125" lon="-0.9486176141023542"><ele>416.0</ele><time>2026-03-30T15:25:19Z</time></trkpt><trkpt lat="42.11185905483278" lon="-0.9488991507272401"><ele>416.0</ele><time>2026-03-30T15:25:20Z</time></trkpt><trkpt lat="42.111730877345884" lon="-0.9492036233028625"><ele>416.0</ele><time>2026-03-30T15:25:21Z</time></trkpt><trkpt lat="42.111628375542715" lon="-0.9495228245220029"><ele>415.5</ele><time>2026-03-30T15:25:22Z</time></trkpt><trkpt lat="42.11155283909792" lon="-0.9498547951970158"><ele>415.0</ele><time>2026-03-30T15:25:23Z</time></trkpt><trkpt lat="42.11150617600462" lon="-0.9501807097632087"><ele>416.5</ele><time>2026-03-30T15:25:24Z</time></trkpt><trkpt lat="42.111482015622315" lon="-0.9505118305935121"><ele>418.0</ele><time>2026-03-30T15:25:25Z</time></trkpt><trkpt lat="42.11148399276388" lon="-0.9508421923115029"><ele>419.0</ele><time>2026-03-30T15:25:26Z</time></trkpt><trkpt lat="42.11151353519566" lon="-0.9511632384903351"><ele>420.0</ele><time>2026-03-30T15:25:27Z</time></trkpt><trkpt lat="42.111566926648024" lon="-0.9514826075726489"><ele>419.5</ele><time>2026-03-30T15:25:28Z</time></trkpt><trkpt lat="42.11164272380406" lon="-0.9517918007994329"><ele>419.0</ele><time>2026-03-30T15:25:29Z</time></trkpt><trkpt lat="42.11173841417001" lon="-0.9520853033352789"><ele>419.0</ele><time>2026-03-30T15:25:30Z</time></trkpt><trkpt lat="42.111856425588314" lon="-0.9523740184316288"><ele>419.0</ele><time>2026-03-30T15:25:31Z</time></trkpt><trkpt lat="42.111982205775014" lon="-0.9526728388191883"><ele>419.0</ele><time>2026-03-30T15:25:32Z</time></trkpt><trkpt lat="42.11209729866203" lon="-0.9529840704179318"><ele>419.0</ele><time>2026-03-30T15:25:33Z</time></trkpt><trkpt lat="42.11221578354934" lon="-0.9532867281451909"><ele>415.5</ele><time>2026-03-30T15:25:34Z</time></trkpt><trkpt lat="42.112328904218295" lon="-0.9535693074405185"><ele>412.0</ele><time>2026-03-30T15:25:35Z</time></trkpt><trkpt lat="42.11243103676958" lon="-0.953840909165394"><ele>410.5</ele><time>2026-03-30T15:25:36Z</time></trkpt><trkpt lat="42.11253542680613" lon="-0.9541260324225711"><ele>409.0</ele><time>2026-03-30T15:25:37Z</time></trkpt><trkpt lat="42.112649876717136" lon="-0.9544198414702206"><ele>406.0</ele><time>2026-03-30T15:25:38Z</time></trkpt><trkpt lat="42.11277416622208" lon="-0.954720631119365"><ele>403.0</ele><time>2026-03-30T15:25:39Z</time></trkpt><trkpt lat="42.11289833160219" lon="-0.9550291882394986"><ele>403.0</ele><time>2026-03-30T15:25:40Z</time></trkpt><trkpt lat="42.113019892379" lon="-0.9553382708469577"><ele>403.0</ele><time>2026-03-30T15:25:41Z</time></trkpt><trkpt lat="42.113152213618605" lon="-0.9556425797346977"><ele>401.0</ele><time>2026-03-30T15:25:42Z</time></trkpt><trkpt lat="42.113305229304856" lon="-0.9559284554468719"><ele>399.0</ele><time>2026-03-30T15:25:43Z</time></trkpt><trkpt lat="42.11347186712022" lon="-0.9562010813728522"><ele>399.0</ele><time>2026-03-30T15:25:44Z</time></trkpt><trkpt lat="42.113641404127165" lon="-0.9564674953243097"><ele>399.0</ele><time>2026-03-30T15:25:45Z</time></trkpt><trkpt lat="42.11380271913407" lon="-0.9567368816699849"><ele>398.5</ele><time>2026-03-30T15:25:46Z</time></trkpt><trkpt lat="42.11395856669913" lon="-0.9570060704351835"><ele>398.0</ele><time>2026-03-30T15:25:47Z</time></trkpt><trkpt lat="42.11411809782549" lon="-0.9572772641878846"><ele>397.0</ele><time>2026-03-30T15:25:48Z</time></trkpt><trkpt lat="42.114282103313705" lon="-0.9575510855153184"><ele>396.0</ele><time>2026-03-30T15:25:49Z</time></trkpt><trkpt lat="42.11445271010347" lon="-0.957810699793839"><ele>396.0</ele><time>2026-03-30T15:25:50Z</time></trkpt><trkpt lat="42.114623372619256" lon="-0.9580666615194157"><ele>396.0</ele><time>2026-03-30T15:25:51Z</time></trkpt><trkpt lat="42.11477193755439" lon="-0.9583413776037625"><ele>395.5</ele><time>2026-03-30T15:25:52Z</time></trkpt><trkpt lat="42.11489343454123" lon="-0.9586574656832473"><ele>395.0</ele><time>2026-03-30T15:25:53Z</time></trkpt><trkpt lat="42.11498937830332" lon="-0.9589931102924695"><ele>396.0</ele><time>2026-03-30T15:25:54Z</time></trkpt><trkpt lat="42.115064992883255" lon="-0.9593482355322085"><ele>397.0</ele><time>2026-03-30T15:25:55Z</time></trkpt><trkpt lat="42.1151104631455" lon="-0.9597134218395333"><ele>396.0</ele><time>2026-03-30T15:25:56Z</time></trkpt><trkpt lat="42.11513206361601" lon="-0.9600926129905676"><ele>395.0</ele><time>2026-03-30T15:25:57Z</time></trkpt><trkpt lat="42.115122869228095" lon="-0.9604854806750145"><ele>394.0</ele><time>2026-03-30T15:25:58Z</time></trkpt><trkpt lat="42.11508647256492" lon="-0.9608753990859118"><ele>393.0</ele><time>2026-03-30T15:25:59Z</time></trkpt><trkpt lat="42.11503003060307" lon="-0.961247733534304"><ele>393.0</ele><time>2026-03-30T15:26:00Z</time></trkpt><trkpt lat="42.11495454058442" lon="-0.9616052012666201"><ele>393.0</ele><time>2026-03-30T15:26:01Z</time></trkpt><trkpt lat="42.11487366726644" lon="-0.9619509171921624"><ele>392.5</ele><time>2026-03-30T15:26:02Z</time></trkpt><trkpt lat="42.1148050338351" lon="-0.9622996657168165"><ele>392.0</ele><time>2026-03-30T15:26:03Z</time></trkpt><trkpt lat="42.11475473253809" lon="-0.9626406384600078"><ele>391.0</ele><time>2026-03-30T15:26:04Z</time></trkpt><trkpt lat="42.11469621302265" lon="-0.9629732006330031"><ele>390.0</ele><time>2026-03-30T15:26:05Z</time></trkpt><trkpt lat="42.114633844787846" lon="-0.9633086818081188"><ele>391.0</ele><time>2026-03-30T15:26:06Z</time></trkpt><trkpt lat="42.114576734500496" lon="-0.9636458517636888"><ele>392.0</ele><time>2026-03-30T15:26:07Z</time></trkpt><trkpt lat="42.11451730744362" lon="-0.9639836313486966"><ele>391.5</ele><time>2026-03-30T15:26:08Z</time></trkpt><trkpt lat="42.114456312078026" lon="-0.9643235191943803"><ele>391.0</ele><time>2026-03-30T15:26:09Z</time></trkpt><trkpt lat="42.11440424372682" lon="-0.9646653090477552"><ele>391.0</ele><time>2026-03-30T15:26:10Z</time></trkpt><trkpt lat="42.11436119992201" lon="-0.9650092326515293"><ele>391.0</ele><time>2026-03-30T15:26:11Z</time></trkpt><trkpt lat="42.11432698265774" lon="-0.9653637505251744"><ele>390.5</ele><time>2026-03-30T15:26:12Z</time></trkpt><trkpt lat="42.11431071176908" lon="-0.965726839569123"><ele>390.0</ele><time>2026-03-30T15:26:13Z</time></trkpt><trkpt lat="42.11430401937388" lon="-0.9660887588731926"><ele>390.0</ele><time>2026-03-30T15:26:14Z</time></trkpt><trkpt lat="42.11430357672826" lon="-0.9664512793424419"><ele>390.0</ele><time>2026-03-30T15:26:15Z</time></trkpt><trkpt lat="42.11430385315517" lon="-0.9668222012219799"><ele>389.0</ele><time>2026-03-30T15:26:16Z</time></trkpt><trkpt lat="42.114306556036205" lon="-0.9671965030428701"><ele>388.0</ele><time>2026-03-30T15:26:17Z</time></trkpt><trkpt lat="42.11430928186026" lon="-0.9675703681703133"><ele>388.0</ele><time>2026-03-30T15:26:18Z</time></trkpt><trkpt lat="42.11431152320606" lon="-0.9679460852112988"><ele>388.0</ele><time>2026-03-30T15:26:19Z</time></trkpt><trkpt lat="42.11431413270642" lon="-0.9683311557147999"><ele>389.0</ele><time>2026-03-30T15:26:20Z</time></trkpt><trkpt lat="42.11431680514927" lon="-0.968715198029337"><ele>390.0</ele><time>2026-03-30T15:26:21Z</time></trkpt><trkpt lat="42.11432262197502" lon="-0.9690664062083456"><ele>389.5</ele><time>2026-03-30T15:26:22Z</time></trkpt><trkpt lat="42.114327459235724" lon="-0.9694084236103219"><ele>389.0</ele><time>2026-03-30T15:26:23Z</time></trkpt><trkpt lat="42.11432900990146" lon="-0.9697546256273389"><ele>389.5</ele><time>2026-03-30T15:26:24Z</time></trkpt><trkpt lat="42.1143300939785" lon="-0.970107639121836"><ele>390.0</ele><time>2026-03-30T15:26:25Z</time></trkpt><trkpt lat="42.11433035902828" lon="-0.9704668705718298"><ele>390.0</ele><time>2026-03-30T15:26:26Z</time></trkpt><trkpt lat="42.114332441657595" lon="-0.9708253037862092"><ele>390.0</ele><time>2026-03-30T15:26:27Z</time></trkpt><trkpt lat="42.11433554057768" lon="-0.9711773662424616"><ele>390.0</ele><time>2026-03-30T15:26:28Z</time></trkpt><trkpt lat="42.11434289385388" lon="-0.9715250085672296"><ele>390.0</ele><time>2026-03-30T15:26:29Z</time></trkpt><trkpt lat="42.11435198638503" lon="-0.9718776530649943"><ele>390.5</ele><time>2026-03-30T15:26:30Z</time></trkpt><trkpt lat="42.11436360603132" lon="-0.9722317338004111"><ele>391.0</ele><time>2026-03-30T15:26:31Z</time></trkpt><trkpt lat="42.11438293306628" lon="-0.9725913098089954"><ele>390.0</ele><time>2026-03-30T15:26:32Z</time></trkpt><trkpt lat="42.11441179616541" lon="-0.9729630746710406"><ele>389.0</ele><time>2026-03-30T15:26:33Z</time></trkpt><trkpt lat="42.114443589294424" lon="-0.9733279718800785"><ele>389.0</ele><time>2026-03-30T15:26:34Z</time></trkpt><trkpt lat="42.114479464697894" lon="-0.9736913306697982"><ele>389.0</ele><time>2026-03-30T15:26:35Z</time></trkpt><trkpt lat="42.114519258766734" lon="-0.9740423802036928"><ele>388.0</ele><time>2026-03-30T15:26:36Z</time></trkpt><trkpt lat="42.1145624564032" lon="-0.974391380995092"><ele>387.0</ele><time>2026-03-30T15:26:37Z</time></trkpt><trkpt lat="42.11460606680738" lon="-0.9747387901944013"><ele>386.0</ele><time>2026-03-30T15:26:38Z</time></trkpt><trkpt lat="42.11464855563054" lon="-0.9750895983659101"><ele>385.0</ele><time>2026-03-30T15:26:39Z</time></trkpt><trkpt lat="42.114691486377176" lon="-0.9754508732645998"><ele>385.0</ele><time>2026-03-30T15:26:40Z</time></trkpt><trkpt lat="42.11473443643043" lon="-0.9758146210449131"><ele>385.0</ele><time>2026-03-30T15:26:41Z</time></trkpt><trkpt lat="42.114778965804746" lon="-0.9761787174108809"><ele>385.0</ele><time>2026-03-30T15:26:42Z</time></trkpt><trkpt lat="42.114825244014625" lon="-0.9765381941418535"><ele>385.0</ele><time>2026-03-30T15:26:43Z</time></trkpt><trkpt lat="42.11487135230403" lon="-0.9768958303219516"><ele>384.5</ele><time>2026-03-30T15:26:44Z</time></trkpt><trkpt lat="42.11491803485878" lon="-0.9772585131125426"><ele>384.0</ele><time>2026-03-30T15:26:45Z</time></trkpt><trkpt lat="42.114960963797564" lon="-0.9776265335344565"><ele>384.0</ele><time>2026-03-30T15:26:46Z</time></trkpt><trkpt lat="42.11499936657912" lon="-0.9780001149769375"><ele>384.0</ele><time>2026-03-30T15:26:47Z</time></trkpt><trkpt lat="42.1150440515704" lon="-0.9783713704508988"><ele>384.0</ele><time>2026-03-30T15:26:48Z</time></trkpt><trkpt lat="42.11508754705748" lon="-0.9787397023962355"><ele>384.0</ele><time>2026-03-30T15:26:49Z</time></trkpt><trkpt lat="42.11512367064895" lon="-0.979113572084635"><ele>384.0</ele><time>2026-03-30T15:26:50Z</time></trkpt><trkpt lat="42.11515214217122" lon="-0.9794894039578174"><ele>384.0</ele><time>2026-03-30T15:26:51Z</time></trkpt><trkpt lat="42.11517395873144" lon="-0.9798634797795889"><ele>384.0</ele><time>2026-03-30T15:26:52Z</time></trkpt><trkpt lat="42.11519776798712" lon="-0.9802326959053229"><ele>384.0</ele><time>2026-03-30T15:26:53Z</time></trkpt><trkpt lat="42.11521014689592" lon="-0.9805986953659231"><ele>384.5</ele><time>2026-03-30T15:26:54Z</time></trkpt><trkpt lat="42.11521118865419" lon="-0.9809678778870681"><ele>385.0</ele><time>2026-03-30T15:26:55Z</time></trkpt><trkpt lat="42.11522395102783" lon="-0.9813294167331252"><ele>384.0</ele><time>2026-03-30T15:26:56Z</time></trkpt><trkpt lat="42.11523117847872" lon="-0.9816934826520676"><ele>383.0</ele><time>2026-03-30T15:26:57Z</time></trkpt><trkpt lat="42.1152306201892" lon="-0.9820563067454071"><ele>383.0</ele><time>2026-03-30T15:26:58Z</time></trkpt><trkpt lat="42.115222344686515" lon="-0.9824139500708944"><ele>383.0</ele><time>2026-03-30T15:26:59Z</time></trkpt><trkpt lat="42.11521145528581" lon="-0.9827709580309305"><ele>381.5</ele><time>2026-03-30T15:27:00Z</time></trkpt><trkpt lat="42.11519748217072" lon="-0.9831389162880431"><ele>380.0</ele><time>2026-03-30T15:27:01Z</time></trkpt><trkpt lat="42.115177631124666" lon="-0.9835013402510627"><ele>380.0</ele><time>2026-03-30T15:27:02Z</time></trkpt><trkpt lat="42.11515494096943" lon="-0.9838644317747531"><ele>380.0</ele><time>2026-03-30T15:27:03Z</time></trkpt><trkpt lat="42.11513704049718" lon="-0.9842308895478359"><ele>380.0</ele><time>2026-03-30T15:27:04Z</time></trkpt><trkpt lat="42.11512533503045" lon="-0.9845961570898929"><ele>380.0</ele><time>2026-03-30T15:27:05Z</time></trkpt><trkpt lat="42.115111286847984" lon="-0.9849627400790131"><ele>380.0</ele><time>2026-03-30T15:27:06Z</time></trkpt><trkpt lat="42.115097287427595" lon="-0.9853255592077914"><ele>380.0</ele><time>2026-03-30T15:27:07Z</time></trkpt><trkpt lat="42.115085658750516" lon="-0.9856795654825092"><ele>380.0</ele><time>2026-03-30T15:27:08Z</time></trkpt><trkpt lat="42.11506020904248" lon="-0.9861033869134299"><ele>380.0</ele><time>2026-03-30T15:27:09Z</time></trkpt><trkpt lat="42.1150429805407" lon="-0.9864806426391945"><ele>380.5</ele><time>2026-03-30T15:27:10Z</time></trkpt><trkpt lat="42.11502402533225" lon="-0.9868434977198185"><ele>381.0</ele><time>2026-03-30T15:27:11Z</time></trkpt><trkpt lat="42.115009562314334" lon="-0.9872087788307911"><ele>381.0</ele><time>2026-03-30T15:27:12Z</time></trkpt><trkpt lat="42.11499154328033" lon="-0.9875814499184234"><ele>381.0</ele><time>2026-03-30T15:27:13Z</time></trkpt><trkpt lat="42.11497686845964" lon="-0.987949984913484"><ele>381.0</ele><time>2026-03-30T15:27:14Z</time></trkpt><trkpt lat="42.11495670045496" lon="-0.9883129750172179"><ele>381.0</ele><time>2026-03-30T15:27:15Z</time></trkpt><trkpt lat="42.11493316806886" lon="-0.9886731710332219"><ele>381.0</ele><time>2026-03-30T15:27:16Z</time></trkpt><trkpt lat="42.11492202989469" lon="-0.9890354304925233"><ele>381.0</ele><time>2026-03-30T15:27:17Z</time></trkpt><trkpt lat="42.11491412737809" lon="-0.9893987217070108"><ele>380.5</ele><time>2026-03-30T15:27:18Z</time></trkpt><trkpt lat="42.11490186598419" lon="-0.9897571269821855"><ele>380.0</ele><time>2026-03-30T15:27:19Z</time></trkpt><trkpt lat="42.1148757968699" lon="-0.990112373606718"><ele>379.5</ele><time>2026-03-30T15:27:20Z</time></trkpt><trkpt lat="42.114848052572086" lon="-0.9904687638035727"><ele>379.0</ele><time>2026-03-30T15:27:21Z</time></trkpt><trkpt lat="42.11482786933332" lon="-0.9908243231759877"><ele>379.0</ele><time>2026-03-30T15:27:22Z</time></trkpt><trkpt lat="42.11481967588797" lon="-0.9911838428071077"><ele>379.0</ele><time>2026-03-30T15:27:23Z</time></trkpt><trkpt lat="42.114810181255955" lon="-0.991546494985534"><ele>379.5</ele><time>2026-03-30T15:27:24Z</time></trkpt><trkpt lat="42.11479288975224" lon="-0.9919005334529926"><ele>380.0</ele><time>2026-03-30T15:27:25Z</time></trkpt><trkpt lat="42.114770551188506" lon="-0.992253068195059"><ele>380.5</ele><time>2026-03-30T15:27:26Z</time></trkpt><trkpt lat="42.11475052698326" lon="-0.9926117595910271"><ele>381.0</ele><time>2026-03-30T15:27:27Z</time></trkpt><trkpt lat="42.11473785380553" lon="-0.9929778999491423"><ele>380.5</ele><time>2026-03-30T15:27:28Z</time></trkpt><trkpt lat="42.11472508379775" lon="-0.9933423324279548"><ele>380.0</ele><time>2026-03-30T15:27:29Z</time></trkpt><trkpt lat="42.114704210525495" lon="-0.9937166220565491"><ele>380.0</ele><time>2026-03-30T15:27:30Z</time></trkpt><trkpt lat="42.11467783683381" lon="-0.9940970380774327"><ele>380.0</ele><time>2026-03-30T15:27:31Z</time></trkpt><trkpt lat="42.11466664840013" lon="-0.9944806845826096"><ele>380.5</ele><time>2026-03-30T15:27:32Z</time></trkpt><trkpt lat="42.114653763566764" lon="-0.9948601026522584"><ele>381.0</ele><time>2026-03-30T15:27:33Z</time></trkpt><trkpt lat="42.11463608829791" lon="-0.9952352779052175"><ele>381.0</ele><time>2026-03-30T15:27:34Z</time></trkpt><trkpt lat="42.114618808067156" lon="-0.9956022910734108"><ele>381.0</ele><time>2026-03-30T15:27:35Z</time></trkpt><trkpt lat="42.11460097251315" lon="-0.9959717915161058"><ele>380.0</ele><time>2026-03-30T15:27:36Z</time></trkpt><trkpt lat="42.11458154055966" lon="-0.9963428529290277"><ele>379.0</ele><time>2026-03-30T15:27:37Z</time></trkpt><trkpt lat="42.11456302267043" lon="-0.9967047527827638"><ele>378.0</ele><time>2026-03-30T15:27:38Z</time></trkpt><trkpt lat="42.114550177581016" lon="-0.9970701161119774"><ele>377.0</ele><time>2026-03-30T15:27:39Z</time></trkpt><trkpt lat="42.11453585721396" lon="-0.9974333325980134"><ele>377.5</ele><time>2026-03-30T15:27:40Z</time></trkpt><trkpt lat="42.11451550461654" lon="-0.9977971427956547"><ele>378.0</ele><time>2026-03-30T15:27:41Z</time></trkpt><trkpt lat="42.114491889151" lon="-0.9981588600138658"><ele>378.0</ele><time>2026-03-30T15:27:42Z</time></trkpt><trkpt lat="42.114472477082906" lon="-0.9985248537148933"><ele>378.0</ele><time>2026-03-30T15:27:43Z</time></trkpt><trkpt lat="42.11446127172396" lon="-0.9988953735726772"><ele>378.0</ele><time>2026-03-30T15:27:44Z</time></trkpt><trkpt lat="42.11444688363938" lon="-0.9992683622001282"><ele>378.0</ele><time>2026-03-30T15:27:45Z</time></trkpt><trkpt lat="42.11442541179029" lon="-0.9996493285581597"><ele>378.0</ele><time>2026-03-30T15:27:46Z</time></trkpt><trkpt lat="42.11440236318804" lon="-1.0000357700925366"><ele>378.0</ele><time>2026-03-30T15:27:47Z</time></trkpt><trkpt lat="42.11437996594101" lon="-1.0004294334248076"><ele>378.0</ele><time>2026-03-30T15:27:48Z</time></trkpt><trkpt lat="42.11436355029809" lon="-1.000823537544541"><ele>378.0</ele><time>2026-03-30T15:27:49Z</time></trkpt><trkpt lat="42.11435531578815" lon="-1.0012184156355042"><ele>377.0</ele><time>2026-03-30T15:27:50Z</time></trkpt><trkpt lat="42.11434397452403" lon="-1.0016138869518967"><ele>376.0</ele><time>2026-03-30T15:27:51Z</time></trkpt><trkpt lat="42.114322061446835" lon="-1.0019955187877172"><ele>376.0</ele><time>2026-03-30T15:27:52Z</time></trkpt><trkpt lat="42.1142951957257" lon="-1.0023666084164133"><ele>376.0</ele><time>2026-03-30T15:27:53Z</time></trkpt><trkpt lat="42.1142677764632" lon="-1.0027401575915158"><ele>376.0</ele><time>2026-03-30T15:27:54Z</time></trkpt><trkpt lat="42.11425771209032" lon="-1.0031123851398192"><ele>376.0</ele><time>2026-03-30T15:27:55Z</time></trkpt><trkpt lat="42.114251190804104" lon="-1.0034826671524184"><ele>376.0</ele><time>2026-03-30T15:27:56Z</time></trkpt><trkpt lat="42.11422828096037" lon="-1.0038606050876495"><ele>376.0</ele><time>2026-03-30T15:27:57Z</time></trkpt><trkpt lat="42.11420115302715" lon="-1.0042452633180556"><ele>375.5</ele><time>2026-03-30T15:27:58Z</time></trkpt><trkpt lat="42.1141882017498" lon="-1.0046169051413327"><ele>375.0</ele><time>2026-03-30T15:27:59Z</time></trkpt><trkpt lat="42.11417803446414" lon="-1.0049869714290778"><ele>375.0</ele><time>2026-03-30T15:28:00Z</time></trkpt><trkpt lat="42.11415738007511" lon="-1.005356472791588"><ele>375.0</ele><time>2026-03-30T15:28:01Z</time></trkpt><trkpt lat="42.11413529421658" lon="-1.005726058047522"><ele>374.5</ele><time>2026-03-30T15:28:02Z</time></trkpt><trkpt lat="42.114119497548025" lon="-1.0061019243902072"><ele>374.0</ele><time>2026-03-30T15:28:03Z</time></trkpt><trkpt lat="42.1141041228152" lon="-1.0064641261350273"><ele>374.5</ele><time>2026-03-30T15:28:04Z</time></trkpt><trkpt lat="42.114085828718736" lon="-1.0068236931217318"><ele>375.0</ele><time>2026-03-30T15:28:05Z</time></trkpt><trkpt lat="42.11406780162859" lon="-1.0071737509637775"><ele>375.0</ele><time>2026-03-30T15:28:06Z</time></trkpt><trkpt lat="42.11405518871351" lon="-1.0075210676784738"><ele>375.0</ele><time>2026-03-30T15:28:07Z</time></trkpt><trkpt lat="42.11404712635811" lon="-1.0078638909631543"><ele>375.0</ele><time>2026-03-30T15:28:08Z</time></trkpt><trkpt lat="42.114037160219546" lon="-1.0082090569650082"><ele>375.0</ele><time>2026-03-30T15:28:09Z</time></trkpt><trkpt lat="42.11402852276713" lon="-1.008549904947868"><ele>375.5</ele><time>2026-03-30T15:28:10Z</time></trkpt><trkpt lat="42.11402348456493" lon="-1.008892304399596"><ele>376.0</ele><time>2026-03-30T15:28:11Z</time></trkpt><trkpt lat="42.11401557346839" lon="-1.0092350185645513"><ele>376.0</ele><time>2026-03-30T15:28:12Z</time></trkpt><trkpt lat="42.11401011516935" lon="-1.009581284996048"><ele>376.0</ele><time>2026-03-30T15:28:13Z</time></trkpt><trkpt lat="42.11400772384954" lon="-1.009937216452649"><ele>374.5</ele><time>2026-03-30T15:28:14Z</time></trkpt><trkpt lat="42.11400476766703" lon="-1.0102998008567132"><ele>373.0</ele><time>2026-03-30T15:28:15Z</time></trkpt><trkpt lat="42.1139980033072" lon="-1.010674171732096"><ele>372.0</ele><time>2026-03-30T15:28:16Z</time></trkpt><trkpt lat="42.11399761682706" lon="-1.0110545974253367"><ele>371.0</ele><time>2026-03-30T15:28:17Z</time></trkpt><trkpt lat="42.11399807174103" lon="-1.0114350108498522"><ele>371.5</ele><time>2026-03-30T15:28:18Z</time></trkpt><trkpt lat="42.1139939376589" lon="-1.0118021369212287"><ele>372.0</ele><time>2026-03-30T15:28:19Z</time></trkpt><trkpt lat="42.11398575124584" lon="-1.0121650036681147"><ele>372.0</ele><time>2026-03-30T15:28:20Z</time></trkpt><trkpt lat="42.113978523446" lon="-1.0125251707791267"><ele>372.0</ele><time>2026-03-30T15:28:21Z</time></trkpt><trkpt lat="42.11397411914216" lon="-1.0128828026872714"><ele>372.0</ele><time>2026-03-30T15:28:22Z</time></trkpt><trkpt lat="42.11396899679911" lon="-1.0132375642399734"><ele>372.0</ele><time>2026-03-30T15:28:23Z</time></trkpt><trkpt lat="42.11396836223035" lon="-1.0135917073603167"><ele>371.5</ele><time>2026-03-30T15:28:24Z</time></trkpt><trkpt lat="42.11396476031706" lon="-1.0139473909453718"><ele>371.0</ele><time>2026-03-30T15:28:25Z</time></trkpt><trkpt lat="42.113960763111784" lon="-1.0143074243168224"><ele>370.5</ele><time>2026-03-30T15:28:26Z</time></trkpt><trkpt lat="42.11395097539105" lon="-1.0146698430876744"><ele>370.0</ele><time>2026-03-30T15:28:27Z</time></trkpt><trkpt lat="42.11394702810014" lon="-1.015032240217138"><ele>369.5</ele><time>2026-03-30T15:28:28Z</time></trkpt><trkpt lat="42.11394635448696" lon="-1.0153988726407948"><ele>369.0</ele><time>2026-03-30T15:28:29Z</time></trkpt><trkpt lat="42.113937618895825" lon="-1.0157590500286005"><ele>369.0</ele><time>2026-03-30T15:28:30Z</time></trkpt><trkpt lat="42.113928857545964" lon="-1.0161276432054331"><ele>369.0</ele><time>2026-03-30T15:28:31Z</time></trkpt><trkpt lat="42.11392796922761" lon="-1.016497069117171"><ele>369.0</ele><time>2026-03-30T15:28:32Z</time></trkpt><trkpt lat="42.11392812572009" lon="-1.0168665338416834"><ele>369.0</ele><time>2026-03-30T15:28:33Z</time></trkpt><trkpt lat="42.11392195634573" lon="-1.0172341826801945"><ele>369.0</ele><time>2026-03-30T15:28:34Z</time></trkpt><trkpt lat="42.11391417242839" lon="-1.017601509903846"><ele>369.0</ele><time>2026-03-30T15:28:35Z</time></trkpt><trkpt lat="42.113911281966956" lon="-1.0179626304060936"><ele>369.5</ele><time>2026-03-30T15:28:36Z</time></trkpt><trkpt lat="42.11391129179926" lon="-1.0183219508998096"><ele>370.0</ele><time>2026-03-30T15:28:37Z</time></trkpt><trkpt lat="42.11390965640038" lon="-1.0186730678837816"><ele>370.0</ele><time>2026-03-30T15:28:38Z</time></trkpt><trkpt lat="42.11389917442491" lon="-1.019027272195353"><ele>370.0</ele><time>2026-03-30T15:28:39Z</time></trkpt><trkpt lat="42.1138916283568" lon="-1.0193880911649296"><ele>369.0</ele><time>2026-03-30T15:28:40Z</time></trkpt><trkpt lat="42.1138912596223" lon="-1.0197419291273282"><ele>368.0</ele><time>2026-03-30T15:28:41Z</time></trkpt><trkpt lat="42.11388766535639" lon="-1.0200958809542058"><ele>367.0</ele><time>2026-03-30T15:28:42Z</time></trkpt><trkpt lat="42.11388403298083" lon="-1.0204476643930274"><ele>366.0</ele><time>2026-03-30T15:28:43Z</time></trkpt><trkpt lat="42.113881913354625" lon="-1.0207900217150674"><ele>366.5</ele><time>2026-03-30T15:28:44Z</time></trkpt><trkpt lat="42.113878390038536" lon="-1.0211303879349662"><ele>367.0</ele><time>2026-03-30T15:28:45Z</time></trkpt><trkpt lat="42.11386935385299" lon="-1.0214773737833724"><ele>366.5</ele><time>2026-03-30T15:28:46Z</time></trkpt><trkpt lat="42.113866048467784" lon="-1.0218165129545778"><ele>366.0</ele><time>2026-03-30T15:28:47Z</time></trkpt><trkpt lat="42.11386251992825" lon="-1.0221626076722692"><ele>366.0</ele><time>2026-03-30T15:28:48Z</time></trkpt><trkpt lat="42.113857066184124" lon="-1.022503794921307"><ele>366.0</ele><time>2026-03-30T15:28:49Z</time></trkpt><trkpt lat="42.11385594872137" lon="-1.0228420809886325"><ele>366.0</ele><time>2026-03-30T15:28:50Z</time></trkpt><trkpt lat="42.11384909659041" lon="-1.0231756436929278"><ele>366.0</ele><time>2026-03-30T15:28:51Z</time></trkpt><trkpt lat="42.11383914563021" lon="-1.0235058673730206"><ele>366.0</ele><time>2026-03-30T15:28:52Z</time></trkpt><trkpt lat="42.113841339362125" lon="-1.0238297048461167"><ele>366.0</ele><time>2026-03-30T15:28:53Z</time></trkpt><trkpt lat="42.11383580235378" lon="-1.0241415822745112"><ele>366.0</ele><time>2026-03-30T15:28:54Z</time></trkpt><trkpt lat="42.1138179947278" lon="-1.0244397105635479"><ele>366.0</ele><time>2026-03-30T15:28:55Z</time></trkpt><trkpt lat="42.11380946685974" lon="-1.0247292681030742"><ele>366.0</ele><time>2026-03-30T15:28:56Z</time></trkpt><trkpt lat="42.11381496116012" lon="-1.0250122873186627"><ele>366.0</ele><time>2026-03-30T15:28:57Z</time></trkpt><trkpt lat="42.11381976465544" lon="-1.0252518160494444"><ele>366.0</ele><time>2026-03-30T15:28:58Z</time></trkpt><trkpt lat="42.11381154533026" lon="-1.0254666528567158"><ele>366.0</ele><time>2026-03-30T15:28:59Z</time></trkpt><trkpt lat="42.11379323537656" lon="-1.0257377628005204"><ele>365.0</ele><time>2026-03-30T15:29:00Z</time></trkpt><trkpt lat="42.11378308234576" lon="-1.0260382013361709"><ele>364.0</ele><time>2026-03-30T15:29:01Z</time></trkpt><trkpt lat="42.11378610060248" lon="-1.0263493632745886"><ele>363.5</ele><time>2026-03-30T15:29:02Z</time></trkpt><trkpt lat="42.113793949903446" lon="-1.0266845775160398"><ele>363.0</ele><time>2026-03-30T15:29:03Z</time></trkpt><trkpt lat="42.11380156755404" lon="-1.0270250004229913"><ele>363.0</ele><time>2026-03-30T15:29:04Z</time></trkpt><trkpt lat="42.11379956863806" lon="-1.0273861501924464"><ele>363.0</ele><time>2026-03-30T15:29:05Z</time></trkpt><trkpt lat="42.11379529741703" lon="-1.0277427638467262"><ele>363.0</ele><time>2026-03-30T15:29:06Z</time></trkpt><trkpt lat="42.11378937485513" lon="-1.0280947852929707"><ele>363.0</ele><time>2026-03-30T15:29:07Z</time></trkpt><trkpt lat="42.11378059638374" lon="-1.0284370011137258"><ele>364.0</ele><time>2026-03-30T15:29:08Z</time></trkpt><trkpt lat="42.11377663533016" lon="-1.0287860914088942"><ele>365.0</ele><time>2026-03-30T15:29:09Z</time></trkpt><trkpt lat="42.113776386978586" lon="-1.0291379638650993"><ele>364.5</ele><time>2026-03-30T15:29:10Z</time></trkpt><trkpt lat="42.1137668779281" lon="-1.0294828592160254"><ele>364.0</ele><time>2026-03-30T15:29:11Z</time></trkpt><trkpt lat="42.113759048822175" lon="-1.0298279523441138"><ele>363.0</ele><time>2026-03-30T15:29:12Z</time></trkpt><trkpt lat="42.113752645681096" lon="-1.03017377754752"><ele>362.0</ele><time>2026-03-30T15:29:13Z</time></trkpt><trkpt lat="42.11374639061677" lon="-1.030515552491258"><ele>362.5</ele><time>2026-03-30T15:29:14Z</time></trkpt><trkpt lat="42.11374575786541" lon="-1.0308571222860925"><ele>363.0</ele><time>2026-03-30T15:29:15Z</time></trkpt><trkpt lat="42.11374909003271" lon="-1.031196611699791"><ele>363.0</ele><time>2026-03-30T15:29:16Z</time></trkpt><trkpt lat="42.11374822740517" lon="-1.0315387265579492"><ele>363.0</ele><time>2026-03-30T15:29:17Z</time></trkpt><trkpt lat="42.11374108080645" lon="-1.0318807123231633"><ele>363.0</ele><time>2026-03-30T15:29:18Z</time></trkpt><trkpt lat="42.113734963983376" lon="-1.0322274163914777"><ele>363.0</ele><time>2026-03-30T15:29:19Z</time></trkpt><trkpt lat="42.11372862614289" lon="-1.032586716239517"><ele>363.0</ele><time>2026-03-30T15:29:20Z</time></trkpt><trkpt lat="42.11372585521747" lon="-1.0329456718209353"><ele>363.0</ele><time>2026-03-30T15:29:21Z</time></trkpt><trkpt lat="42.11372361598914" lon="-1.0332972190240073"><ele>363.5</ele><time>2026-03-30T15:29:22Z</time></trkpt><trkpt lat="42.11371788396994" lon="-1.0336472782976671"><ele>364.0</ele><time>2026-03-30T15:29:23Z</time></trkpt><trkpt lat="42.11371601802806" lon="-1.03398775665908"><ele>365.0</ele><time>2026-03-30T15:29:24Z</time></trkpt><trkpt lat="42.113720133832416" lon="-1.034311627703598"><ele>366.0</ele><time>2026-03-30T15:29:25Z</time></trkpt><trkpt lat="42.11373216402705" lon="-1.034625144378225"><ele>366.0</ele><time>2026-03-30T15:29:26Z</time></trkpt><trkpt lat="42.11375479913805" lon="-1.034930285398002"><ele>366.0</ele><time>2026-03-30T15:29:27Z</time></trkpt><trkpt lat="42.11379245429235" lon="-1.0352293314555574"><ele>366.5</ele><time>2026-03-30T15:29:28Z</time></trkpt><trkpt lat="42.113835536612015" lon="-1.0355347790157423"><ele>367.0</ele><time>2026-03-30T15:29:29Z</time></trkpt><trkpt lat="42.11388969630064" lon="-1.0358496441864555"><ele>368.0</ele><time>2026-03-30T15:29:30Z</time></trkpt><trkpt lat="42.11395688988426" lon="-1.0361748502045898"><ele>369.0</ele><time>2026-03-30T15:29:31Z</time></trkpt><trkpt lat="42.11402823640305" lon="-1.036510813493911"><ele>368.5</ele><time>2026-03-30T15:29:32Z</time></trkpt><trkpt lat="42.1140976767207" lon="-1.036838987983314"><ele>368.0</ele><time>2026-03-30T15:29:33Z</time></trkpt><trkpt lat="42.1141734811552" lon="-1.0371652634352024"><ele>367.5</ele><time>2026-03-30T15:29:34Z</time></trkpt><trkpt lat="42.11425290460323" lon="-1.0375059663770907"><ele>367.0</ele><time>2026-03-30T15:29:35Z</time></trkpt><trkpt lat="42.11432906964072" lon="-1.0378546152336101"><ele>367.0</ele><time>2026-03-30T15:29:36Z</time></trkpt><trkpt lat="42.114403344832226" lon="-1.0382070563970023"><ele>367.0</ele><time>2026-03-30T15:29:37Z</time></trkpt><trkpt lat="42.11448054805086" lon="-1.0385566305182197"><ele>367.0</ele><time>2026-03-30T15:29:38Z</time></trkpt><trkpt lat="42.11455878096605" lon="-1.0389009854457114"><ele>367.0</ele><time>2026-03-30T15:29:39Z</time></trkpt><trkpt lat="42.11463349026054" lon="-1.0392464254357774"><ele>366.5</ele><time>2026-03-30T15:29:40Z</time></trkpt><trkpt lat="42.114706671952774" lon="-1.039588202689789"><ele>366.0</ele><time>2026-03-30T15:29:41Z</time></trkpt><trkpt lat="42.11478255429674" lon="-1.0399264000616548"><ele>366.5</ele><time>2026-03-30T15:29:42Z</time></trkpt><trkpt lat="42.11486011144233" lon="-1.0402661419781523"><ele>367.0</ele><time>2026-03-30T15:29:43Z</time></trkpt><trkpt lat="42.11493264306224" lon="-1.0406087505320687"><ele>365.5</ele><time>2026-03-30T15:29:44Z</time></trkpt><trkpt lat="42.115005839788694" lon="-1.040948553963044"><ele>364.0</ele><time>2026-03-30T15:29:45Z</time></trkpt><trkpt lat="42.115084032679576" lon="-1.0412879471442325"><ele>364.0</ele><time>2026-03-30T15:29:46Z</time></trkpt><trkpt lat="42.11515862934387" lon="-1.0416207218962885"><ele>364.0</ele><time>2026-03-30T15:29:47Z</time></trkpt><trkpt lat="42.11523137793502" lon="-1.0419571178689144"><ele>364.0</ele><time>2026-03-30T15:29:48Z</time></trkpt><trkpt lat="42.115303492388165" lon="-1.0422921436357977"><ele>364.0</ele><time>2026-03-30T15:29:49Z</time></trkpt><trkpt lat="42.11537620799875" lon="-1.042612783064318"><ele>364.0</ele><time>2026-03-30T15:29:50Z</time></trkpt><trkpt lat="42.115453241763426" lon="-1.042942169192552"><ele>364.0</ele><time>2026-03-30T15:29:51Z</time></trkpt><trkpt lat="42.11552764656082" lon="-1.0432794545534219"><ele>364.0</ele><time>2026-03-30T15:29:52Z</time></trkpt><trkpt lat="42.11559795183081" lon="-1.04362138514948"><ele>364.0</ele><time>2026-03-30T15:29:53Z</time></trkpt><trkpt lat="42.11567376055733" lon="-1.0439601454173701"><ele>364.0</ele><time>2026-03-30T15:29:54Z</time></trkpt><trkpt lat="42.115748084487876" lon="-1.0443076724177518"><ele>364.0</ele><time>2026-03-30T15:29:55Z</time></trkpt><trkpt lat="42.115829390216334" lon="-1.044684644179068"><ele>364.5</ele><time>2026-03-30T15:29:56Z</time></trkpt><trkpt lat="42.115911125030046" lon="-1.045056291656445"><ele>365.0</ele><time>2026-03-30T15:29:57Z</time></trkpt><trkpt lat="42.11599336629416" lon="-1.0454341173046073"><ele>365.0</ele><time>2026-03-30T15:29:58Z</time></trkpt><trkpt lat="42.11607072894322" lon="-1.0458146947735465"><ele>365.0</ele><time>2026-03-30T15:29:59Z</time></trkpt><trkpt lat="42.116135494354864" lon="-1.0461932124509372"><ele>365.0</ele><time>2026-03-30T15:30:00Z</time></trkpt><trkpt lat="42.11619711871986" lon="-1.0465705145896789"><ele>365.0</ele><time>2026-03-30T15:30:01Z</time></trkpt><trkpt lat="42.11632370842002" lon="-1.0469195149099868"><ele>364.5</ele><time>2026-03-30T15:30:02Z</time></trkpt><trkpt lat="42.11640107896376" lon="-1.0472747037744468"><ele>364.0</ele><time>2026-03-30T15:30:03Z</time></trkpt><trkpt lat="42.11648531424994" lon="-1.0476200061288696"><ele>364.0</ele><time>2026-03-30T15:30:04Z</time></trkpt><trkpt lat="42.11656864710521" lon="-1.0479600047436453"><ele>364.0</ele><time>2026-03-30T15:30:05Z</time></trkpt><trkpt lat="42.11664022958367" lon="-1.0483061349451148"><ele>364.0</ele><time>2026-03-30T15:30:06Z</time></trkpt><trkpt lat="42.116713053962265" lon="-1.0486522353503296"><ele>364.0</ele><time>2026-03-30T15:30:07Z</time></trkpt><trkpt lat="42.1167890620016" lon="-1.0489948340222528"><ele>364.5</ele><time>2026-03-30T15:30:08Z</time></trkpt><trkpt lat="42.11686507197821" lon="-1.0493434806132433"><ele>365.0</ele><time>2026-03-30T15:30:09Z</time></trkpt><trkpt lat="42.116942052243274" lon="-1.0496923769829192"><ele>364.0</ele><time>2026-03-30T15:30:10Z</time></trkpt><trkpt lat="42.1170222134364" lon="-1.0500487720854546"><ele>363.0</ele><time>2026-03-30T15:30:11Z</time></trkpt><trkpt lat="42.11710215553827" lon="-1.0504147394190264"><ele>363.0</ele><time>2026-03-30T15:30:12Z</time></trkpt><trkpt lat="42.11718223849611" lon="-1.0507830731340855"><ele>363.0</ele><time>2026-03-30T15:30:13Z</time></trkpt><trkpt lat="42.11726304164392" lon="-1.0511486416371123"><ele>363.0</ele><time>2026-03-30T15:30:14Z</time></trkpt><trkpt lat="42.117341621916395" lon="-1.051504017376446"><ele>363.0</ele><time>2026-03-30T15:30:15Z</time></trkpt><trkpt lat="42.117420620720154" lon="-1.05185060366043"><ele>363.0</ele><time>2026-03-30T15:30:16Z</time></trkpt><trkpt lat="42.11749916261126" lon="-1.0521945419784131"><ele>363.0</ele><time>2026-03-30T15:30:17Z</time></trkpt><trkpt lat="42.11757298853688" lon="-1.0525397191230546"><ele>363.0</ele><time>2026-03-30T15:30:18Z</time></trkpt><trkpt lat="42.117646802970604" lon="-1.0528853046668236"><ele>363.0</ele><time>2026-03-30T15:30:19Z</time></trkpt><trkpt lat="42.11772138342189" lon="-1.0532307882569991"><ele>363.0</ele><time>2026-03-30T15:30:20Z</time></trkpt><trkpt lat="42.117797662568876" lon="-1.0535754837416467"><ele>363.0</ele><time>2026-03-30T15:30:21Z</time></trkpt><trkpt lat="42.117875801962136" lon="-1.0539205717039264"><ele>362.5</ele><time>2026-03-30T15:30:22Z</time></trkpt><trkpt lat="42.11795338767573" lon="-1.0542651122518545"><ele>362.0</ele><time>2026-03-30T15:30:23Z</time></trkpt><trkpt lat="42.118030213184184" lon="-1.0546104620466252"><ele>361.0</ele><time>2026-03-30T15:30:24Z</time></trkpt><trkpt lat="42.11810528511274" lon="-1.0549588657352633"><ele>360.0</ele><time>2026-03-30T15:30:25Z</time></trkpt><trkpt lat="42.118185252608484" lon="-1.055324202722039"><ele>360.5</ele><time>2026-03-30T15:30:26Z</time></trkpt><trkpt lat="42.11826318616724" lon="-1.0556896703775844"><ele>361.0</ele><time>2026-03-30T15:30:27Z</time></trkpt><trkpt lat="42.118341581266904" lon="-1.0560459237063278"><ele>361.0</ele><time>2026-03-30T15:30:28Z</time></trkpt><trkpt lat="42.11841823790345" lon="-1.0563837597615873"><ele>361.0</ele><time>2026-03-30T15:30:29Z</time></trkpt><trkpt lat="42.11849367126784" lon="-1.0567146157661576"><ele>361.0</ele><time>2026-03-30T15:30:30Z</time></trkpt><trkpt lat="42.11856879168243" lon="-1.0570508432555934"><ele>361.0</ele><time>2026-03-30T15:30:31Z</time></trkpt><trkpt lat="42.11864547033477" lon="-1.0573911195944068"><ele>359.5</ele><time>2026-03-30T15:30:32Z</time></trkpt><trkpt lat="42.11873197613486" lon="-1.0577376814832575"><ele>358.0</ele><time>2026-03-30T15:30:33Z</time></trkpt><trkpt lat="42.11882891263251" lon="-1.0580903916430624"><ele>357.5</ele><time>2026-03-30T15:30:34Z</time></trkpt><trkpt lat="42.11895102512761" lon="-1.0584330105983868"><ele>357.0</ele><time>2026-03-30T15:30:35Z</time></trkpt><trkpt lat="42.11906823055555" lon="-1.0587693629012935"><ele>358.0</ele><time>2026-03-30T15:30:36Z</time></trkpt><trkpt lat="42.11918540682011" lon="-1.0591093598809844"><ele>359.0</ele><time>2026-03-30T15:30:37Z</time></trkpt><trkpt lat="42.11930587202176" lon="-1.0594511353389122"><ele>359.0</ele><time>2026-03-30T15:30:38Z</time></trkpt><trkpt lat="42.11943268282722" lon="-1.0597934475845234"><ele>359.0</ele><time>2026-03-30T15:30:39Z</time></trkpt><trkpt lat="42.11955025521514" lon="-1.0601281612174505"><ele>357.5</ele><time>2026-03-30T15:30:40Z</time></trkpt><trkpt lat="42.11966652782547" lon="-1.0604672038046308"><ele>356.0</ele><time>2026-03-30T15:30:41Z</time></trkpt><trkpt lat="42.11978630695342" lon="-1.0607999567048754"><ele>357.5</ele><time>2026-03-30T15:30:42Z</time></trkpt><trkpt lat="42.11990787716705" lon="-1.0611291296377636"><ele>359.0</ele><time>2026-03-30T15:30:43Z</time></trkpt><trkpt lat="42.12002245931507" lon="-1.0614551440703244"><ele>357.5</ele><time>2026-03-30T15:30:44Z</time></trkpt><trkpt lat="42.120139078053825" lon="-1.061785925376167"><ele>356.0</ele><time>2026-03-30T15:30:45Z</time></trkpt><trkpt lat="42.120258703081625" lon="-1.0621155655475674"><ele>356.0</ele><time>2026-03-30T15:30:46Z</time></trkpt><trkpt lat="42.12037537996558" lon="-1.062444975080687"><ele>356.0</ele><time>2026-03-30T15:30:47Z</time></trkpt><trkpt lat="42.120488373224696" lon="-1.0627745993361568"><ele>356.0</ele><time>2026-03-30T15:30:48Z</time></trkpt><trkpt lat="42.12060590582507" lon="-1.0631057283533778"><ele>356.0</ele><time>2026-03-30T15:30:49Z</time></trkpt><trkpt lat="42.12072936339345" lon="-1.063446030325184"><ele>356.0</ele><time>2026-03-30T15:30:50Z</time></trkpt><trkpt lat="42.12085576907949" lon="-1.0637881774088183"><ele>356.0</ele><time>2026-03-30T15:30:51Z</time></trkpt><trkpt lat="42.120974605030064" lon="-1.0641270139462824"><ele>355.0</ele><time>2026-03-30T15:30:52Z</time></trkpt><trkpt lat="42.12108596601859" lon="-1.064462813195177"><ele>354.0</ele><time>2026-03-30T15:30:53Z</time></trkpt><trkpt lat="42.12120588970783" lon="-1.0647982393356412"><ele>355.0</ele><time>2026-03-30T15:30:54Z</time></trkpt><trkpt lat="42.121336977417116" lon="-1.06513481054552"><ele>356.0</ele><time>2026-03-30T15:30:55Z</time></trkpt><trkpt lat="42.12145499218804" lon="-1.065472657450213"><ele>356.5</ele><time>2026-03-30T15:30:56Z</time></trkpt><trkpt lat="42.121569845866475" lon="-1.065812756360021"><ele>357.0</ele><time>2026-03-30T15:30:57Z</time></trkpt><trkpt lat="42.121690397326866" lon="-1.066145381423923"><ele>357.0</ele><time>2026-03-30T15:30:58Z</time></trkpt><trkpt lat="42.12181146569859" lon="-1.0664771584228119"><ele>357.0</ele><time>2026-03-30T15:30:59Z</time></trkpt><trkpt lat="42.121929265909635" lon="-1.0668111232861013"><ele>357.0</ele><time>2026-03-30T15:31:00Z</time></trkpt><trkpt lat="42.122050043904174" lon="-1.067157940347325"><ele>357.0</ele><time>2026-03-30T15:31:01Z</time></trkpt><trkpt lat="42.122168390695364" lon="-1.0674968395960338"><ele>357.0</ele><time>2026-03-30T15:31:02Z</time></trkpt><trkpt lat="42.122294678978136" lon="-1.06783701858847"><ele>357.0</ele><time>2026-03-30T15:31:03Z</time></trkpt><trkpt lat="42.122423104083" lon="-1.068181418495521"><ele>357.0</ele><time>2026-03-30T15:31:04Z</time></trkpt><trkpt lat="42.12254506377379" lon="-1.0685272169404778"><ele>357.0</ele><time>2026-03-30T15:31:05Z</time></trkpt><trkpt lat="42.12266192147725" lon="-1.068865160277428"><ele>356.5</ele><time>2026-03-30T15:31:06Z</time></trkpt><trkpt lat="42.12277954300121" lon="-1.0692077497408607"><ele>356.0</ele><time>2026-03-30T15:31:07Z</time></trkpt><trkpt lat="42.12290598573494" lon="-1.069545072781942"><ele>356.0</ele><time>2026-03-30T15:31:08Z</time></trkpt><trkpt lat="42.12302790502115" lon="-1.0698799444866955"><ele>356.0</ele><time>2026-03-30T15:31:09Z</time></trkpt><trkpt lat="42.123145388062596" lon="-1.0702111863105899"><ele>356.0</ele><time>2026-03-30T15:31:10Z</time></trkpt><trkpt lat="42.123259945131075" lon="-1.070538747899268"><ele>356.0</ele><time>2026-03-30T15:31:11Z</time></trkpt><trkpt lat="42.12337348059611" lon="-1.0708679054258914"><ele>355.5</ele><time>2026-03-30T15:31:12Z</time></trkpt><trkpt lat="42.12348913967853" lon="-1.0711903368321554"><ele>355.0</ele><time>2026-03-30T15:31:13Z</time></trkpt><trkpt lat="42.12360500472157" lon="-1.0715131607692527"><ele>353.5</ele><time>2026-03-30T15:31:14Z</time></trkpt><trkpt lat="42.123723134551355" lon="-1.0718384919267614"><ele>352.0</ele><time>2026-03-30T15:31:15Z</time></trkpt><trkpt lat="42.123839629528284" lon="-1.0721623478585054"><ele>353.0</ele><time>2026-03-30T15:31:16Z</time></trkpt><trkpt lat="42.12395462032173" lon="-1.0724910285678764"><ele>354.0</ele><time>2026-03-30T15:31:17Z</time></trkpt><trkpt lat="42.12407404105911" lon="-1.0728223539038606"><ele>354.0</ele><time>2026-03-30T15:31:18Z</time></trkpt><trkpt lat="42.12419296183144" lon="-1.073153824086733"><ele>354.0</ele><time>2026-03-30T15:31:19Z</time></trkpt><trkpt lat="42.12430911001531" lon="-1.073488725176481"><ele>353.5</ele><time>2026-03-30T15:31:20Z</time></trkpt><trkpt lat="42.12442942608915" lon="-1.073814349146457"><ele>353.0</ele><time>2026-03-30T15:31:21Z</time></trkpt><trkpt lat="42.124543358829186" lon="-1.0741393823841519"><ele>351.5</ele><time>2026-03-30T15:31:22Z</time></trkpt><trkpt lat="42.124648192568216" lon="-1.0744664420162242"><ele>350.0</ele><time>2026-03-30T15:31:23Z</time></trkpt><trkpt lat="42.124739597387844" lon="-1.0747988270194428"><ele>350.0</ele><time>2026-03-30T15:31:24Z</time></trkpt><trkpt lat="42.124818759934115" lon="-1.0751395785152973"><ele>350.0</ele><time>2026-03-30T15:31:25Z</time></trkpt><trkpt lat="42.12487379104397" lon="-1.0754797685695"><ele>352.5</ele><time>2026-03-30T15:31:26Z</time></trkpt><trkpt lat="42.12490926569914" lon="-1.0758279164398123"><ele>355.0</ele><time>2026-03-30T15:31:27Z</time></trkpt><trkpt lat="42.12493226559429" lon="-1.0761768654551065"><ele>355.0</ele><time>2026-03-30T15:31:28Z</time></trkpt><trkpt lat="42.12493451888791" lon="-1.0765232266828113"><ele>355.0</ele><time>2026-03-30T15:31:29Z</time></trkpt><trkpt lat="42.12492889425866" lon="-1.0768697426547231"><ele>354.5</ele><time>2026-03-30T15:31:30Z</time></trkpt><trkpt lat="42.124920613656386" lon="-1.0772113694834333"><ele>354.0</ele><time>2026-03-30T15:31:31Z</time></trkpt><trkpt lat="42.12490995517362" lon="-1.077557730352398"><ele>354.0</ele><time>2026-03-30T15:31:32Z</time></trkpt><trkpt lat="42.12490328578563" lon="-1.077914579922398"><ele>354.0</ele><time>2026-03-30T15:31:33Z</time></trkpt><trkpt lat="42.12490319818692" lon="-1.0782788360819688"><ele>353.5</ele><time>2026-03-30T15:31:34Z</time></trkpt><trkpt lat="42.12489950390439" lon="-1.0786443927487475"><ele>353.0</ele><time>2026-03-30T15:31:35Z</time></trkpt><trkpt lat="42.124890661347706" lon="-1.079019292517824"><ele>351.0</ele><time>2026-03-30T15:31:36Z</time></trkpt><trkpt lat="42.12488586626892" lon="-1.0793975115584444"><ele>349.0</ele><time>2026-03-30T15:31:37Z</time></trkpt><trkpt lat="42.12488192545646" lon="-1.0797651139020616"><ele>349.0</ele><time>2026-03-30T15:31:38Z</time></trkpt><trkpt lat="42.124871452499214" lon="-1.080116545632532"><ele>349.0</ele><time>2026-03-30T15:31:39Z</time></trkpt><trkpt lat="42.124867013687705" lon="-1.0804680438245278"><ele>349.0</ele><time>2026-03-30T15:31:40Z</time></trkpt><trkpt lat="42.12486706170647" lon="-1.0808188592183308"><ele>349.0</ele><time>2026-03-30T15:31:41Z</time></trkpt><trkpt lat="42.12485402096515" lon="-1.0811749927928238"><ele>349.0</ele><time>2026-03-30T15:31:42Z</time></trkpt><trkpt lat="42.12484564660236" lon="-1.0815356952915984"><ele>349.0</ele><time>2026-03-30T15:31:43Z</time></trkpt><trkpt lat="42.1248430327195" lon="-1.0818915264909128"><ele>349.0</ele><time>2026-03-30T15:31:44Z</time></trkpt><trkpt lat="42.12484269414138" lon="-1.0822500355425493"><ele>349.0</ele><time>2026-03-30T15:31:45Z</time></trkpt><trkpt lat="42.12485084887742" lon="-1.0826091208802595"><ele>349.0</ele><time>2026-03-30T15:31:46Z</time></trkpt><trkpt lat="42.12485611214629" lon="-1.0829735414485424"><ele>349.0</ele><time>2026-03-30T15:31:47Z</time></trkpt><trkpt lat="42.12487021505566" lon="-1.0833375278857937"><ele>349.0</ele><time>2026-03-30T15:31:48Z</time></trkpt><trkpt lat="42.124895924478054" lon="-1.0836967830138"><ele>349.0</ele><time>2026-03-30T15:31:49Z</time></trkpt><trkpt lat="42.12492424941071" lon="-1.0840481986983836"><ele>349.0</ele><time>2026-03-30T15:31:50Z</time></trkpt><trkpt lat="42.124949276084976" lon="-1.0843969825208184"><ele>349.0</ele><time>2026-03-30T15:31:51Z</time></trkpt><trkpt lat="42.12497021535532" lon="-1.0847476801680889"><ele>349.0</ele><time>2026-03-30T15:31:52Z</time></trkpt><trkpt lat="42.12499347004645" lon="-1.0850997243491334"><ele>349.0</ele><time>2026-03-30T15:31:53Z</time></trkpt><trkpt lat="42.125025276798986" lon="-1.0854417723636085"><ele>349.0</ele><time>2026-03-30T15:31:54Z</time></trkpt><trkpt lat="42.125060215984554" lon="-1.0857923806617282"><ele>349.0</ele><time>2026-03-30T15:31:55Z</time></trkpt><trkpt lat="42.12508177636141" lon="-1.0861345974550962"><ele>349.0</ele><time>2026-03-30T15:31:56Z</time></trkpt><trkpt lat="42.125106358810065" lon="-1.0864737682592138"><ele>349.0</ele><time>2026-03-30T15:31:57Z</time></trkpt><trkpt lat="42.12513232482868" lon="-1.0868120438395286"><ele>348.5</ele><time>2026-03-30T15:31:58Z</time></trkpt><trkpt lat="42.125155832715336" lon="-1.087154097952926"><ele>348.0</ele><time>2026-03-30T15:31:59Z</time></trkpt><trkpt lat="42.125174440444795" lon="-1.0875003104836272"><ele>347.5</ele><time>2026-03-30T15:32:00Z</time></trkpt><trkpt lat="42.12519999824144" lon="-1.087852765163867"><ele>347.0</ele><time>2026-03-30T15:32:01Z</time></trkpt><trkpt lat="42.1252418264155" lon="-1.0881988262444784"><ele>346.0</ele><time>2026-03-30T15:32:02Z</time></trkpt><trkpt lat="42.12526694581055" lon="-1.0885417921369085"><ele>345.0</ele><time>2026-03-30T15:32:03Z</time></trkpt><trkpt lat="42.125287946856126" lon="-1.0888792330928228"><ele>346.0</ele><time>2026-03-30T15:32:04Z</time></trkpt><trkpt lat="42.125314534009966" lon="-1.0892144764863512"><ele>347.0</ele><time>2026-03-30T15:32:05Z</time></trkpt><trkpt lat="42.125333109235285" lon="-1.089563910982879"><ele>347.0</ele><time>2026-03-30T15:32:06Z</time></trkpt><trkpt lat="42.12535890981666" lon="-1.0899169840976033"><ele>347.0</ele><time>2026-03-30T15:32:07Z</time></trkpt><trkpt lat="42.12538960357845" lon="-1.0902709064655975"><ele>346.5</ele><time>2026-03-30T15:32:08Z</time></trkpt><trkpt lat="42.12541909147197" lon="-1.0906258218345704"><ele>346.0</ele><time>2026-03-30T15:32:09Z</time></trkpt><trkpt lat="42.12544836446696" lon="-1.0909730663919852"><ele>346.0</ele><time>2026-03-30T15:32:10Z</time></trkpt><trkpt lat="42.12547244911849" lon="-1.091316686570318"><ele>346.0</ele><time>2026-03-30T15:32:11Z</time></trkpt><trkpt lat="42.125497126188286" lon="-1.0916774835413436"><ele>346.0</ele><time>2026-03-30T15:32:12Z</time></trkpt><trkpt lat="42.125527922409916" lon="-1.092054713603268"><ele>346.0</ele><time>2026-03-30T15:32:13Z</time></trkpt><trkpt lat="42.125560033949355" lon="-1.0924371431268225"><ele>345.0</ele><time>2026-03-30T15:32:14Z</time></trkpt><trkpt lat="42.12558457481186" lon="-1.0928252015986892"><ele>344.0</ele><time>2026-03-30T15:32:15Z</time></trkpt><trkpt lat="42.12560213058237" lon="-1.0932395353914952"><ele>344.0</ele><time>2026-03-30T15:32:16Z</time></trkpt><trkpt lat="42.125619996791684" lon="-1.0936666419800867"><ele>344.0</ele><time>2026-03-30T15:32:17Z</time></trkpt><trkpt lat="42.12564704496486" lon="-1.0940700659860816"><ele>344.5</ele><time>2026-03-30T15:32:18Z</time></trkpt><trkpt lat="42.125697073156026" lon="-1.0944672819925605"><ele>345.0</ele><time>2026-03-30T15:32:19Z</time></trkpt><trkpt lat="42.12575266469126" lon="-1.0948579744078628"><ele>345.0</ele><time>2026-03-30T15:32:20Z</time></trkpt><trkpt lat="42.125791646026" lon="-1.0952425793645206"><ele>345.0</ele><time>2026-03-30T15:32:21Z</time></trkpt><trkpt lat="42.125815246121945" lon="-1.0956259243962205"><ele>345.0</ele><time>2026-03-30T15:32:22Z</time></trkpt><trkpt lat="42.12583744912438" lon="-1.0960100070262608"><ele>345.0</ele><time>2026-03-30T15:32:23Z</time></trkpt><trkpt lat="42.12586651661673" lon="-1.0963929631377733"><ele>345.0</ele><time>2026-03-30T15:32:24Z</time></trkpt><trkpt lat="42.125896071412924" lon="-1.096772584953898"><ele>345.0</ele><time>2026-03-30T15:32:25Z</time></trkpt><trkpt lat="42.12592699177867" lon="-1.0971496498118558"><ele>345.0</ele><time>2026-03-30T15:32:26Z</time></trkpt><trkpt lat="42.125957217487304" lon="-1.0975249025901457"><ele>345.0</ele><time>2026-03-30T15:32:27Z</time></trkpt><trkpt lat="42.1259806020688" lon="-1.0978977119299744"><ele>345.0</ele><time>2026-03-30T15:32:28Z</time></trkpt><trkpt lat="42.12600675457105" lon="-1.0982784700243042"><ele>345.0</ele><time>2026-03-30T15:32:29Z</time></trkpt><trkpt lat="42.12603779694" lon="-1.0986599229553384"><ele>345.0</ele><time>2026-03-30T15:32:30Z</time></trkpt><trkpt lat="42.12606636867297" lon="-1.0990457814754846"><ele>345.0</ele><time>2026-03-30T15:32:31Z</time></trkpt><trkpt lat="42.1260977793827" lon="-1.0994326068904088"><ele>345.0</ele><time>2026-03-30T15:32:32Z</time></trkpt><trkpt lat="42.1261282832436" lon="-1.0998211502997561"><ele>345.0</ele><time>2026-03-30T15:32:33Z</time></trkpt><trkpt lat="42.1261597635169" lon="-1.1002085202038354"><ele>345.0</ele><time>2026-03-30T15:32:34Z</time></trkpt><trkpt lat="42.12619605726201" lon="-1.1005979534576202"><ele>345.0</ele><time>2026-03-30T15:32:35Z</time></trkpt><trkpt lat="42.126226861654466" lon="-1.1009878577494412"><ele>345.0</ele><time>2026-03-30T15:32:36Z</time></trkpt><trkpt lat="42.12625551205051" lon="-1.1013658050791004"><ele>345.0</ele><time>2026-03-30T15:32:37Z</time></trkpt><trkpt lat="42.12628307983455" lon="-1.1017423970137903"><ele>344.5</ele><time>2026-03-30T15:32:38Z</time></trkpt><trkpt lat="42.12631003819984" lon="-1.102127812279887"><ele>344.0</ele><time>2026-03-30T15:32:39Z</time></trkpt><trkpt lat="42.126337758778476" lon="-1.1024481811135682"><ele>344.0</ele><time>2026-03-30T15:32:40Z</time></trkpt><trkpt lat="42.126367492864354" lon="-1.1028085258193872"><ele>344.0</ele><time>2026-03-30T15:32:41Z</time></trkpt><trkpt lat="42.12639588141918" lon="-1.103171297953327"><ele>344.0</ele><time>2026-03-30T15:32:42Z</time></trkpt><trkpt lat="42.1264201481098" lon="-1.1035339275101905"><ele>344.0</ele><time>2026-03-30T15:32:43Z</time></trkpt><trkpt lat="42.126447222070304" lon="-1.1038857409956089"><ele>342.5</ele><time>2026-03-30T15:32:44Z</time></trkpt><trkpt lat="42.12647329590252" lon="-1.1042358640122913"><ele>341.0</ele><time>2026-03-30T15:32:45Z</time></trkpt><trkpt lat="42.1264994331853" lon="-1.1045823134772284"><ele>341.0</ele><time>2026-03-30T15:32:46Z</time></trkpt><trkpt lat="42.126521999409306" lon="-1.1049228317525237"><ele>341.0</ele><time>2026-03-30T15:32:47Z</time></trkpt><trkpt lat="42.12654000686424" lon="-1.1052551666586898"><ele>341.0</ele><time>2026-03-30T15:32:48Z</time></trkpt><trkpt lat="42.12657079571958" lon="-1.1055903017135993"><ele>341.0</ele><time>2026-03-30T15:32:49Z</time></trkpt><trkpt lat="42.12660031797274" lon="-1.1059319149421483"><ele>341.0</ele><time>2026-03-30T15:32:50Z</time></trkpt><trkpt lat="42.12662787712201" lon="-1.1062714355627952"><ele>341.0</ele><time>2026-03-30T15:32:51Z</time></trkpt><trkpt lat="42.126651614681776" lon="-1.106606600907111"><ele>340.5</ele><time>2026-03-30T15:32:52Z</time></trkpt><trkpt lat="42.12667581938607" lon="-1.1069451309751652"><ele>340.0</ele><time>2026-03-30T15:32:53Z</time></trkpt><trkpt lat="42.12670128308206" lon="-1.1072900795041893"><ele>340.0</ele><time>2026-03-30T15:32:54Z</time></trkpt><trkpt lat="42.126725663365086" lon="-1.1076403276577025"><ele>340.0</ele><time>2026-03-30T15:32:55Z</time></trkpt><trkpt lat="42.126752700699825" lon="-1.1079910715681882"><ele>340.5</ele><time>2026-03-30T15:32:56Z</time></trkpt><trkpt lat="42.1267815202519" lon="-1.1083462457162672"><ele>341.0</ele><time>2026-03-30T15:32:57Z</time></trkpt><trkpt lat="42.12681014954111" lon="-1.1087005471883404"><ele>341.0</ele><time>2026-03-30T15:32:58Z</time></trkpt><trkpt lat="42.12683635714016" lon="-1.1090514716948865"><ele>341.0</ele><time>2026-03-30T15:32:59Z</time></trkpt><trkpt lat="42.126864077822354" lon="-1.1093990252203405"><ele>340.5</ele><time>2026-03-30T15:33:00Z</time></trkpt><trkpt lat="42.12689473109565" lon="-1.1097513580785503"><ele>340.0</ele><time>2026-03-30T15:33:01Z</time></trkpt><trkpt lat="42.126918450219215" lon="-1.1100997259264107"><ele>340.0</ele><time>2026-03-30T15:33:02Z</time></trkpt><trkpt lat="42.126938952558" lon="-1.110447415493643"><ele>340.0</ele><time>2026-03-30T15:33:03Z</time></trkpt><trkpt lat="42.12696226131278" lon="-1.1107926134257657"><ele>340.0</ele><time>2026-03-30T15:33:04Z</time></trkpt><trkpt lat="42.126992936127124" lon="-1.1111365064591578"><ele>340.0</ele><time>2026-03-30T15:33:05Z</time></trkpt><trkpt lat="42.127023414132616" lon="-1.1114836121419278"><ele>340.5</ele><time>2026-03-30T15:33:06Z</time></trkpt><trkpt lat="42.12704796157201" lon="-1.1118323992214174"><ele>341.0</ele><time>2026-03-30T15:33:07Z</time></trkpt><trkpt lat="42.12707330333501" lon="-1.1121830617660402"><ele>340.5</ele><time>2026-03-30T15:33:08Z</time></trkpt><trkpt lat="42.12710504610525" lon="-1.1125342261242328"><ele>340.0</ele><time>2026-03-30T15:33:09Z</time></trkpt><trkpt lat="42.127129381337475" lon="-1.112884852557913"><ele>340.0</ele><time>2026-03-30T15:33:10Z</time></trkpt><trkpt lat="42.12715344864135" lon="-1.1132279161558647"><ele>340.0</ele><time>2026-03-30T15:33:11Z</time></trkpt><trkpt lat="42.127176839807895" lon="-1.1135551815335485"><ele>339.5</ele><time>2026-03-30T15:33:12Z</time></trkpt><trkpt lat="42.127200133928945" lon="-1.1138954041144824"><ele>339.0</ele><time>2026-03-30T15:33:13Z</time></trkpt><trkpt lat="42.12722718850399" lon="-1.1142172152024639"><ele>339.0</ele><time>2026-03-30T15:33:14Z</time></trkpt><trkpt lat="42.12725214358058" lon="-1.1145407804870286"><ele>339.0</ele><time>2026-03-30T15:33:15Z</time></trkpt><trkpt lat="42.12728021376834" lon="-1.1148575723277043"><ele>339.0</ele><time>2026-03-30T15:33:16Z</time></trkpt><trkpt lat="42.12731778899908" lon="-1.1151729239215051"><ele>339.0</ele><time>2026-03-30T15:33:17Z</time></trkpt><trkpt lat="42.12736186444534" lon="-1.1154961284849452"><ele>339.0</ele><time>2026-03-30T15:33:18Z</time></trkpt><trkpt lat="42.127423789698724" lon="-1.115823585266925"><ele>339.0</ele><time>2026-03-30T15:33:19Z</time></trkpt><trkpt lat="42.127508162853374" lon="-1.116143042462837"><ele>339.0</ele><time>2026-03-30T15:33:20Z</time></trkpt><trkpt lat="42.127604727857104" lon="-1.1164548464892505"><ele>339.0</ele><time>2026-03-30T15:33:21Z</time></trkpt><trkpt lat="42.12772067188305" lon="-1.1167612499600887"><ele>338.5</ele><time>2026-03-30T15:33:22Z</time></trkpt><trkpt lat="42.12784613957344" lon="-1.1170654056826408"><ele>338.0</ele><time>2026-03-30T15:33:23Z</time></trkpt><trkpt lat="42.12797430608343" lon="-1.1173700185159492"><ele>338.0</ele><time>2026-03-30T15:33:24Z</time></trkpt><trkpt lat="42.128099621455355" lon="-1.1176784568960059"><ele>338.0</ele><time>2026-03-30T15:33:25Z</time></trkpt><trkpt lat="42.1282287675347" lon="-1.1179866896462851"><ele>338.0</ele><time>2026-03-30T15:33:26Z</time></trkpt><trkpt lat="42.12836814118957" lon="-1.1182981664506415"><ele>338.0</ele><time>2026-03-30T15:33:27Z</time></trkpt><trkpt lat="42.12851719627722" lon="-1.1186149930342775"><ele>338.0</ele><time>2026-03-30T15:33:28Z</time></trkpt><trkpt lat="42.12868899258176" lon="-1.1189218520643136"><ele>338.0</ele><time>2026-03-30T15:33:29Z</time></trkpt><trkpt lat="42.12887709529175" lon="-1.1192078358437418"><ele>338.5</ele><time>2026-03-30T15:33:30Z</time></trkpt><trkpt lat="42.12907402719368" lon="-1.1194718973515432"><ele>339.0</ele><time>2026-03-30T15:33:31Z</time></trkpt><trkpt lat="42.129277369351136" lon="-1.1197023185756378"><ele>339.5</ele><time>2026-03-30T15:33:32Z</time></trkpt><trkpt lat="42.12948251818926" lon="-1.1199093540353118"><ele>340.0</ele><time>2026-03-30T15:33:33Z</time></trkpt><trkpt lat="42.1296848993001" lon="-1.1201099041520004"><ele>340.0</ele><time>2026-03-30T15:33:34Z</time></trkpt><trkpt lat="42.12988855863873" lon="-1.1202891587910304"><ele>340.0</ele><time>2026-03-30T15:33:35Z</time></trkpt><trkpt lat="42.1301078105342" lon="-1.1204521465615567"><ele>341.0</ele><time>2026-03-30T15:33:36Z</time></trkpt><trkpt lat="42.130348379286424" lon="-1.1206019308534634"><ele>342.0</ele><time>2026-03-30T15:33:37Z</time></trkpt><trkpt lat="42.130604870623934" lon="-1.1207350685899766"><ele>342.5</ele><time>2026-03-30T15:33:38Z</time></trkpt><trkpt lat="42.130867816181194" lon="-1.1208601914466283"><ele>343.0</ele><time>2026-03-30T15:33:39Z</time></trkpt><trkpt lat="42.13113103319133" lon="-1.1209780223604044"><ele>343.0</ele><time>2026-03-30T15:33:40Z</time></trkpt><trkpt lat="42.1313884260499" lon="-1.12108661537911"><ele>343.0</ele><time>2026-03-30T15:33:41Z</time></trkpt><trkpt lat="42.13163797827004" lon="-1.121191824411877"><ele>345.0</ele><time>2026-03-30T15:33:42Z</time></trkpt><trkpt lat="42.1318844761651" lon="-1.1213057414411494"><ele>347.0</ele><time>2026-03-30T15:33:43Z</time></trkpt><trkpt lat="42.13213762442384" lon="-1.121428301269898"><ele>347.0</ele><time>2026-03-30T15:33:44Z</time></trkpt><trkpt lat="42.132399214102314" lon="-1.1215469126823066"><ele>347.0</ele><time>2026-03-30T15:33:45Z</time></trkpt><trkpt lat="42.13265962342261" lon="-1.1216552994076567"><ele>346.0</ele><time>2026-03-30T15:33:46Z</time></trkpt><trkpt lat="42.13291188534102" lon="-1.121762647255927"><ele>345.0</ele><time>2026-03-30T15:33:47Z</time></trkpt><trkpt lat="42.133165199356746" lon="-1.1218809485208483"><ele>342.5</ele><time>2026-03-30T15:33:48Z</time></trkpt><trkpt lat="42.13341459849009" lon="-1.1219874893430053"><ele>340.0</ele><time>2026-03-30T15:33:49Z</time></trkpt><trkpt lat="42.13366299948995" lon="-1.1220976390788588"><ele>340.0</ele><time>2026-03-30T15:33:50Z</time></trkpt><trkpt lat="42.133909245453715" lon="-1.1222153727495707"><ele>340.0</ele><time>2026-03-30T15:33:51Z</time></trkpt><trkpt lat="42.134158338845445" lon="-1.1223289284864875"><ele>335.5</ele><time>2026-03-30T15:33:52Z</time></trkpt><trkpt lat="42.13441143325484" lon="-1.1224341253828416"><ele>331.0</ele><time>2026-03-30T15:33:53Z</time></trkpt><trkpt lat="42.13465999128132" lon="-1.1225499673251005"><ele>330.0</ele><time>2026-03-30T15:33:54Z</time></trkpt><trkpt lat="42.13490037018044" lon="-1.1226734758546357"><ele>329.0</ele><time>2026-03-30T15:33:55Z</time></trkpt><trkpt lat="42.13514178394886" lon="-1.1227950198499637"><ele>329.0</ele><time>2026-03-30T15:33:56Z</time></trkpt><trkpt lat="42.13538807173784" lon="-1.1229217691754683"><ele>329.0</ele><time>2026-03-30T15:33:57Z</time></trkpt><trkpt lat="42.13563563189964" lon="-1.123070231586879"><ele>330.0</ele><time>2026-03-30T15:33:58Z</time></trkpt><trkpt lat="42.13587685343418" lon="-1.1232370620591428"><ele>331.0</ele><time>2026-03-30T15:33:59Z</time></trkpt><trkpt lat="42.13611301135563" lon="-1.1234141536270228"><ele>331.0</ele><time>2026-03-30T15:34:00Z</time></trkpt><trkpt lat="42.136343265822845" lon="-1.1236047719446591"><ele>331.0</ele><time>2026-03-30T15:34:01Z</time></trkpt><trkpt lat="42.13656856426392" lon="-1.1238042938046813"><ele>329.0</ele><time>2026-03-30T15:34:02Z</time></trkpt><trkpt lat="42.13678141937738" lon="-1.124010342311549"><ele>327.0</ele><time>2026-03-30T15:34:03Z</time></trkpt><trkpt lat="42.13699291901298" lon="-1.1242211374700637"><ele>327.0</ele><time>2026-03-30T15:34:04Z</time></trkpt><trkpt lat="42.137195575861014" lon="-1.1244444078668683"><ele>327.0</ele><time>2026-03-30T15:34:05Z</time></trkpt><trkpt lat="42.137390245059564" lon="-1.1246757670576917"><ele>325.5</ele><time>2026-03-30T15:34:06Z</time></trkpt><trkpt lat="42.13757384799446" lon="-1.1249204162056217"><ele>324.0</ele><time>2026-03-30T15:34:07Z</time></trkpt><trkpt lat="42.13775753736822" lon="-1.1251710380209372"><ele>324.0</ele><time>2026-03-30T15:34:08Z</time></trkpt><trkpt lat="42.13793797325874" lon="-1.1254283635294884"><ele>324.0</ele><time>2026-03-30T15:34:09Z</time></trkpt><trkpt lat="42.138112247314865" lon="-1.1257027845706942"><ele>323.5</ele><time>2026-03-30T15:34:10Z</time></trkpt><trkpt lat="42.13828153845266" lon="-1.1259817177478222"><ele>323.0</ele><time>2026-03-30T15:34:11Z</time></trkpt><trkpt lat="42.13843953352276" lon="-1.1262708669421757"><ele>324.0</ele><time>2026-03-30T15:34:12Z</time></trkpt><trkpt lat="42.138592170062765" lon="-1.1265614117658291"><ele>325.0</ele><time>2026-03-30T15:34:13Z</time></trkpt><trkpt lat="42.138731253940946" lon="-1.1268653806085855"><ele>325.0</ele><time>2026-03-30T15:34:14Z</time></trkpt><trkpt lat="42.13885906014623" lon="-1.1271755348481367"><ele>325.0</ele><time>2026-03-30T15:34:15Z</time></trkpt><trkpt lat="42.138979779052676" lon="-1.1274868562210751"><ele>326.0</ele><time>2026-03-30T15:34:16Z</time></trkpt><trkpt lat="42.139094664790875" lon="-1.1278065640718353"><ele>327.0</ele><time>2026-03-30T15:34:17Z</time></trkpt><trkpt lat="42.139209019042255" lon="-1.128137073009521"><ele>326.0</ele><time>2026-03-30T15:34:18Z</time></trkpt><trkpt lat="42.13932247445868" lon="-1.128444817571718"><ele>325.0</ele><time>2026-03-30T15:34:19Z</time></trkpt><trkpt lat="42.13938997544055" lon="-1.1287804044825813"><ele>325.0</ele><time>2026-03-30T15:34:20Z</time></trkpt><trkpt lat="42.139467327293524" lon="-1.129100937367438"><ele>325.0</ele><time>2026-03-30T15:34:21Z</time></trkpt><trkpt lat="42.13954262232734" lon="-1.1294256322709113"><ele>325.0</ele><time>2026-03-30T15:34:22Z</time></trkpt><trkpt lat="42.139606039580414" lon="-1.1297507040018535"><ele>325.0</ele><time>2026-03-30T15:34:23Z</time></trkpt><trkpt lat="42.13965433443369" lon="-1.1300725731984353"><ele>325.0</ele><time>2026-03-30T15:34:24Z</time></trkpt><trkpt lat="42.13969169736852" lon="-1.1303920519337245"><ele>325.0</ele><time>2026-03-30T15:34:25Z</time></trkpt><trkpt lat="42.139719985834425" lon="-1.1307064874825212"><ele>326.0</ele><time>2026-03-30T15:34:26Z</time></trkpt><trkpt lat="42.1397286827889" lon="-1.131030514823755"><ele>327.0</ele><time>2026-03-30T15:34:27Z</time></trkpt><trkpt lat="42.1397179241661" lon="-1.13138404658528"><ele>327.0</ele><time>2026-03-30T15:34:28Z</time></trkpt><trkpt lat="42.139735363440835" lon="-1.1317317900636805"><ele>327.0</ele><time>2026-03-30T15:34:29Z</time></trkpt><trkpt lat="42.13976836653636" lon="-1.132071169953784"><ele>326.0</ele><time>2026-03-30T15:34:30Z</time></trkpt><trkpt lat="42.13978983676461" lon="-1.1324159581407023"><ele>325.0</ele><time>2026-03-30T15:34:31Z</time></trkpt><trkpt lat="42.13976735584892" lon="-1.1327610389941882"><ele>325.0</ele><time>2026-03-30T15:34:32Z</time></trkpt><trkpt lat="42.1397361132606" lon="-1.1331096381988999"><ele>325.0</ele><time>2026-03-30T15:34:33Z</time></trkpt><trkpt lat="42.13970645884832" lon="-1.133449059130994"><ele>325.0</ele><time>2026-03-30T15:34:34Z</time></trkpt><trkpt lat="42.13966706803583" lon="-1.1337801315794898"><ele>325.0</ele><time>2026-03-30T15:34:35Z</time></trkpt><trkpt lat="42.13961313122602" lon="-1.1341122532359043"><ele>326.0</ele><time>2026-03-30T15:34:36Z</time></trkpt><trkpt lat="42.13954978918074" lon="-1.1344503871939338"><ele>327.0</ele><time>2026-03-30T15:34:37Z</time></trkpt><trkpt lat="42.13949263878226" lon="-1.1347918477709358"><ele>327.0</ele><time>2026-03-30T15:34:38Z</time></trkpt><trkpt lat="42.13942147199324" lon="-1.135111262121913"><ele>327.0</ele><time>2026-03-30T15:34:39Z</time></trkpt><trkpt lat="42.139334108273424" lon="-1.1354191518802579"><ele>326.5</ele><time>2026-03-30T15:34:40Z</time></trkpt><trkpt lat="42.139239576384384" lon="-1.1357216029246127"><ele>326.0</ele><time>2026-03-30T15:34:41Z</time></trkpt><trkpt lat="42.13914823156141" lon="-1.1360039963924353"><ele>326.0</ele><time>2026-03-30T15:34:42Z</time></trkpt><trkpt lat="42.139061366885265" lon="-1.136255961491748"><ele>326.0</ele><time>2026-03-30T15:34:43Z</time></trkpt><trkpt lat="42.138967670394976" lon="-1.136509379786376"><ele>326.0</ele><time>2026-03-30T15:34:44Z</time></trkpt><trkpt lat="42.13887990966699" lon="-1.136740068624551"><ele>326.5</ele><time>2026-03-30T15:34:45Z</time></trkpt><trkpt lat="42.13879863600082" lon="-1.136934348208866"><ele>327.0</ele><time>2026-03-30T15:34:46Z</time></trkpt><trkpt lat="42.13871699647936" lon="-1.1371065501337518"><ele>327.5</ele><time>2026-03-30T15:34:47Z</time></trkpt><trkpt lat="42.13865153049568" lon="-1.1372414244091833"><ele>328.0</ele><time>2026-03-30T15:34:48Z</time></trkpt><trkpt lat="42.1386068546506" lon="-1.137354704985041"><ele>327.59999999999997</ele><time>2026-03-30T15:34:49Z</time></trkpt><trkpt lat="42.138590907728954" lon="-1.1374596617852877"><ele>327.2</ele><time>2026-03-30T15:34:50Z</time></trkpt><trkpt lat="42.13860896509146" lon="-1.1375703597722706"><ele>326.8</ele><time>2026-03-30T15:34:51Z</time></trkpt><trkpt lat="42.13865860682988" lon="-1.1377020487992437"><ele>326.4</ele><time>2026-03-30T15:34:52Z</time></trkpt><trkpt lat="42.138707371415975" lon="-1.137845904305757"><ele>326.0</ele><time>2026-03-30T15:34:53Z</time></trkpt><trkpt lat="42.13871695631563" lon="-1.1380078575437613"><ele>326.0</ele><time>2026-03-30T15:34:54Z</time></trkpt><trkpt lat="42.13868421710385" lon="-1.1381771799622005"><ele>326.0</ele><time>2026-03-30T15:34:55Z</time></trkpt><trkpt lat="42.138601226274346" lon="-1.1383232946706325"><ele>326.0</ele><time>2026-03-30T15:34:56Z</time></trkpt><trkpt lat="42.13848421678427" lon="-1.1384241221655138"><ele>326.0</ele><time>2026-03-30T15:34:57Z</time></trkpt><trkpt lat="42.138352324113654" lon="-1.138472461744527"><ele>325.5</ele><time>2026-03-30T15:34:58Z</time></trkpt><trkpt lat="42.13821467015179" lon="-1.1384712422186727"><ele>325.0</ele><time>2026-03-30T15:34:59Z</time></trkpt><trkpt lat="42.13808991700018" lon="-1.138433063644519"><ele>324.5</ele><time>2026-03-30T15:35:00Z</time></trkpt><trkpt lat="42.13797911334116" lon="-1.1384599181688357"><ele>324.0</ele><time>2026-03-30T15:35:01Z</time></trkpt><trkpt lat="42.13788101376361" lon="-1.1385650267695906"><ele>324.0</ele><time>2026-03-30T15:35:02Z</time></trkpt><trkpt lat="42.137794628908765" lon="-1.138705237189044"><ele>324.0</ele><time>2026-03-30T15:35:03Z</time></trkpt><trkpt lat="42.13770622547879" lon="-1.1388610298556905"><ele>324.0</ele><time>2026-03-30T15:35:04Z</time></trkpt><trkpt lat="42.137585773232544" lon="-1.1390411040288377"><ele>324.0</ele><time>2026-03-30T15:35:05Z</time></trkpt><trkpt lat="42.13743107319594" lon="-1.1392655116624835"><ele>324.0</ele><time>2026-03-30T15:35:06Z</time></trkpt><trkpt lat="42.13726262519727" lon="-1.1395040658515092"><ele>324.0</ele><time>2026-03-30T15:35:07Z</time></trkpt><trkpt lat="42.13708765173208" lon="-1.1397590065899095"><ele>324.0</ele><time>2026-03-30T15:35:08Z</time></trkpt><trkpt lat="42.13692529872041" lon="-1.1399931260534653"><ele>325.0</ele><time>2026-03-30T15:35:09Z</time></trkpt><trkpt lat="42.13676585778308" lon="-1.140224313520935"><ele>326.0</ele><time>2026-03-30T15:35:10Z</time></trkpt><trkpt lat="42.13660453801402" lon="-1.1404599069962669"><ele>326.0</ele><time>2026-03-30T15:35:11Z</time></trkpt><trkpt lat="42.136431900747496" lon="-1.140712194057849"><ele>326.0</ele><time>2026-03-30T15:35:12Z</time></trkpt><trkpt lat="42.1362451077614" lon="-1.140984928917035"><ele>325.0</ele><time>2026-03-30T15:35:13Z</time></trkpt><trkpt lat="42.13605900013882" lon="-1.1412475140648113"><ele>324.0</ele><time>2026-03-30T15:35:14Z</time></trkpt><trkpt lat="42.13588189655901" lon="-1.1414858527214837"><ele>324.0</ele><time>2026-03-30T15:35:15Z</time></trkpt><trkpt lat="42.13570986617005" lon="-1.1417324063767922"><ele>324.0</ele><time>2026-03-30T15:35:16Z</time></trkpt><trkpt lat="42.13554397002381" lon="-1.1419895183886042"><ele>324.0</ele><time>2026-03-30T15:35:17Z</time></trkpt><trkpt lat="42.13537152648379" lon="-1.1422326657056683"><ele>324.0</ele><time>2026-03-30T15:35:18Z</time></trkpt><trkpt lat="42.13519632184612" lon="-1.1424716934554418"><ele>323.0</ele><time>2026-03-30T15:35:19Z</time></trkpt><trkpt lat="42.135023241519015" lon="-1.1427052449338908"><ele>322.0</ele><time>2026-03-30T15:35:20Z</time></trkpt><trkpt lat="42.13485041578449" lon="-1.1429408002291532"><ele>321.5</ele><time>2026-03-30T15:35:21Z</time></trkpt><trkpt lat="42.1346826299073" lon="-1.1431914545701587"><ele>321.0</ele><time>2026-03-30T15:35:22Z</time></trkpt><trkpt lat="42.13450902630238" lon="-1.143446269162634"><ele>321.0</ele><time>2026-03-30T15:35:23Z</time></trkpt><trkpt lat="42.134326379897985" lon="-1.143709268458091"><ele>321.0</ele><time>2026-03-30T15:35:24Z</time></trkpt><trkpt lat="42.134143360822044" lon="-1.1439736511867749"><ele>321.5</ele><time>2026-03-30T15:35:25Z</time></trkpt><trkpt lat="42.1339580768768" lon="-1.1442471984295117"><ele>322.0</ele><time>2026-03-30T15:35:26Z</time></trkpt><trkpt lat="42.13377357946791" lon="-1.144523670940965"><ele>322.0</ele><time>2026-03-30T15:35:27Z</time></trkpt><trkpt lat="42.13358382476464" lon="-1.1447941321362718"><ele>322.0</ele><time>2026-03-30T15:35:28Z</time></trkpt><trkpt lat="42.13339205394592" lon="-1.1450671162203516"><ele>322.0</ele><time>2026-03-30T15:35:29Z</time></trkpt><trkpt lat="42.133198925732714" lon="-1.1453387778050297"><ele>322.0</ele><time>2026-03-30T15:35:30Z</time></trkpt><trkpt lat="42.13300939065606" lon="-1.1456096605916457"><ele>321.0</ele><time>2026-03-30T15:35:31Z</time></trkpt><trkpt lat="42.13282226930126" lon="-1.1458811566164633"><ele>320.0</ele><time>2026-03-30T15:35:32Z</time></trkpt><trkpt lat="42.13263418878444" lon="-1.1461538381103467"><ele>320.0</ele><time>2026-03-30T15:35:33Z</time></trkpt><trkpt lat="42.13243729862048" lon="-1.1464316416086198"><ele>320.0</ele><time>2026-03-30T15:35:34Z</time></trkpt><trkpt lat="42.1322377525112" lon="-1.1467238827541064"><ele>320.5</ele><time>2026-03-30T15:35:35Z</time></trkpt><trkpt lat="42.13204775042422" lon="-1.1469979791706535"><ele>321.0</ele><time>2026-03-30T15:35:36Z</time></trkpt><trkpt lat="42.13185413475308" lon="-1.1472566902439136"><ele>320.0</ele><time>2026-03-30T15:35:37Z</time></trkpt><trkpt lat="42.13166313655431" lon="-1.1475441482545945"><ele>319.0</ele><time>2026-03-30T15:35:38Z</time></trkpt><trkpt lat="42.131471108316795" lon="-1.147821977504587"><ele>319.0</ele><time>2026-03-30T15:35:39Z</time></trkpt><trkpt lat="42.13126811939806" lon="-1.1481217983090928"><ele>319.0</ele><time>2026-03-30T15:35:40Z</time></trkpt><trkpt lat="42.131056983372275" lon="-1.148427981355304"><ele>318.5</ele><time>2026-03-30T15:35:41Z</time></trkpt><trkpt lat="42.130850810620146" lon="-1.1487025726669953"><ele>318.0</ele><time>2026-03-30T15:35:42Z</time></trkpt><trkpt lat="42.13070160703914" lon="-1.148934037773545"><ele>317.5</ele><time>2026-03-30T15:35:43Z</time></trkpt><trkpt lat="42.13052938366218" lon="-1.1491547372892998"><ele>317.0</ele><time>2026-03-30T15:35:44Z</time></trkpt><trkpt lat="42.130362267273554" lon="-1.1493623888578852"><ele>317.0</ele><time>2026-03-30T15:35:45Z</time></trkpt><trkpt lat="42.13019701763567" lon="-1.1495505230644993"><ele>317.0</ele><time>2026-03-30T15:35:46Z</time></trkpt><trkpt lat="42.13003539867278" lon="-1.1497180481750597"><ele>317.0</ele><time>2026-03-30T15:35:47Z</time></trkpt><trkpt lat="42.12987897959488" lon="-1.149878848210605"><ele>317.33333333333337</ele><time>2026-03-30T15:35:48Z</time></trkpt><trkpt lat="42.129713896632815" lon="-1.1500431342254367"><ele>317.6666666666667</ele><time>2026-03-30T15:35:49Z</time></trkpt><trkpt lat="42.12954253604747" lon="-1.1502105746899671"><ele>318.0</ele><time>2026-03-30T15:35:50Z</time></trkpt><trkpt lat="42.129460598602485" lon="-1.1502540738781426"><ele>318.0</ele><time>2026-03-30T15:35:51Z</time></trkpt><trkpt lat="42.129355635547746" lon="-1.1503321223615404"><ele>318.0</ele><time>2026-03-30T15:35:52Z</time></trkpt><trkpt lat="42.12926149935448" lon="-1.150389620006329"><ele>318.0</ele><time>2026-03-30T15:35:53Z</time></trkpt><trkpt lat="42.1291948257252" lon="-1.1504626327237732"><ele>318.0</ele><time>2026-03-30T15:35:54Z</time></trkpt><trkpt lat="42.12915879385999" lon="-1.1505512058057998"><ele>318.0</ele><time>2026-03-30T15:35:55Z</time></trkpt><trkpt lat="42.129156354144236" lon="-1.1506366860451072"><ele>318.0</ele><time>2026-03-30T15:35:56Z</time></trkpt><trkpt lat="42.12915803534084" lon="-1.1508003099375097"><ele>317.75</ele><time>2026-03-30T15:35:58Z</time></trkpt><trkpt lat="42.129151405222885" lon="-1.1508928648657195"><ele>317.5</ele><time>2026-03-30T15:35:59Z</time></trkpt><trkpt lat="42.12931611731891" lon="-1.150940783933052"><ele>317.25</ele><time>2026-03-30T15:36:00Z</time></trkpt><trkpt lat="42.12941531396068" lon="-1.1510107758913726"><ele>317.0</ele><time>2026-03-30T15:36:01Z</time></trkpt><trkpt lat="42.12954352521098" lon="-1.1510435032337274"><ele>317.0</ele><time>2026-03-30T15:36:02Z</time></trkpt><trkpt lat="42.129717219567176" lon="-1.15111196904386"><ele>317.0</ele><time>2026-03-30T15:36:03Z</time></trkpt><trkpt lat="42.12983710448887" lon="-1.151151817256933"><ele>317.0</ele><time>2026-03-30T15:36:04Z</time></trkpt><trkpt lat="42.12993376472617" lon="-1.1511731946568093"><ele>317.0</ele><time>2026-03-30T15:36:05Z</time></trkpt><trkpt lat="42.130019308674726" lon="-1.1511819259638836"><ele>317.0</ele><time>2026-03-30T15:36:06Z</time></trkpt><trkpt lat="42.13009692290807" lon="-1.1511761491071115"><ele>317.0</ele><time>2026-03-30T15:36:07Z</time></trkpt><trkpt lat="42.13019666608387" lon="-1.1511575697877818"><ele>317.0</ele><time>2026-03-30T15:36:08Z</time></trkpt><trkpt lat="42.13029943217796" lon="-1.1511209837794474"><ele>317.0</ele><time>2026-03-30T15:36:09Z</time></trkpt><trkpt lat="42.130397973370506" lon="-1.151060232342027"><ele>317.0</ele><time>2026-03-30T15:36:10Z</time></trkpt><trkpt lat="42.13048747324897" lon="-1.150974587445362"><ele>317.0</ele><time>2026-03-30T15:36:11Z</time></trkpt><trkpt lat="42.130579259408414" lon="-1.150893777165697"><ele>317.0</ele><time>2026-03-30T15:36:12Z</time></trkpt><trkpt lat="42.13067639973446" lon="-1.1508120608572683"><ele>317.0</ele><time>2026-03-30T15:36:13Z</time></trkpt><trkpt lat="42.13079289981532" lon="-1.1507206307577855"><ele>317.0</ele><time>2026-03-30T15:36:14Z</time></trkpt><trkpt lat="42.1309233881808" lon="-1.1506289906251064"><ele>317.25</ele><time>2026-03-30T15:36:15Z</time></trkpt><trkpt lat="42.131040878387594" lon="-1.1505680269679674"><ele>317.5</ele><time>2026-03-30T15:36:16Z</time></trkpt><trkpt lat="42.13116810645195" lon="-1.150528180890762"><ele>317.75</ele><time>2026-03-30T15:36:17Z</time></trkpt><trkpt lat="42.131311533195344" lon="-1.1505293372403824"><ele>318.0</ele><time>2026-03-30T15:36:18Z</time></trkpt><trkpt lat="42.13147048718076" lon="-1.150578789024446"><ele>318.3333333333333</ele><time>2026-03-30T15:36:19Z</time></trkpt><trkpt lat="42.131626963212526" lon="-1.1506599200897654"><ele>318.66666666666663</ele><time>2026-03-30T15:36:20Z</time></trkpt><trkpt lat="42.1317780700553" lon="-1.1507700792444178"><ele>319.0</ele><time>2026-03-30T15:36:21Z</time></trkpt><trkpt lat="42.13192410845406" lon="-1.1509060396945245"><ele>319.66666666666663</ele><time>2026-03-30T15:36:22Z</time></trkpt><trkpt lat="42.13206563216759" lon="-1.1510534006335176"><ele>320.3333333333333</ele><time>2026-03-30T15:36:23Z</time></trkpt><trkpt lat="42.132212820719296" lon="-1.151191248632148"><ele>321.0</ele><time>2026-03-30T15:36:24Z</time></trkpt><trkpt lat="42.13235952492543" lon="-1.1513117267063062"><ele>321.3333333333333</ele><time>2026-03-30T15:36:25Z</time></trkpt><trkpt lat="42.13250084889925" lon="-1.1514330825104455"><ele>321.66666666666663</ele><time>2026-03-30T15:36:26Z</time></trkpt><trkpt lat="42.132638424919286" lon="-1.1515534083414554"><ele>322.0</ele><time>2026-03-30T15:36:27Z</time></trkpt><trkpt lat="42.13277378723655" lon="-1.151669981145637"><ele>321.0</ele><time>2026-03-30T15:36:28Z</time></trkpt><trkpt lat="42.13290530024391" lon="-1.1517847186069845"><ele>320.0</ele><time>2026-03-30T15:36:29Z</time></trkpt><trkpt lat="42.133036576869785" lon="-1.1519030115422415"><ele>319.0</ele><time>2026-03-30T15:36:30Z</time></trkpt><trkpt lat="42.133174064548626" lon="-1.1520236057118323"><ele>319.3333333333333</ele><time>2026-03-30T15:36:31Z</time></trkpt><trkpt lat="42.13332921290778" lon="-1.1521510793500227"><ele>319.6666666666667</ele><time>2026-03-30T15:36:32Z</time></trkpt><trkpt lat="42.13349416739069" lon="-1.1522898830605497"><ele>320.0</ele><time>2026-03-30T15:36:33Z</time></trkpt><trkpt lat="42.13366276067709" lon="-1.1524399274854424"><ele>320.0</ele><time>2026-03-30T15:36:34Z</time></trkpt><trkpt lat="42.13383409924473" lon="-1.1525896002940557"><ele>320.0</ele><time>2026-03-30T15:36:35Z</time></trkpt><trkpt lat="42.13400613929765" lon="-1.152737042063715"><ele>320.0</ele><time>2026-03-30T15:36:36Z</time></trkpt><trkpt lat="42.13418208554742" lon="-1.1528864883379817"><ele>320.6666666666667</ele><time>2026-03-30T15:36:37Z</time></trkpt><trkpt lat="42.13435964330195" lon="-1.1530366212243552"><ele>321.3333333333333</ele><time>2026-03-30T15:36:38Z</time></trkpt><trkpt lat="42.134539450221" lon="-1.153189837675635"><ele>322.0</ele><time>2026-03-30T15:36:39Z</time></trkpt><trkpt lat="42.134721273802" lon="-1.1533485209515173"><ele>324.0</ele><time>2026-03-30T15:36:40Z</time></trkpt><trkpt lat="42.13491205155069" lon="-1.1535129469368477"><ele>326.0</ele><time>2026-03-30T15:36:41Z</time></trkpt><trkpt lat="42.135109392818876" lon="-1.1536806543359777"><ele>326.0</ele><time>2026-03-30T15:36:42Z</time></trkpt><trkpt lat="42.13530156613736" lon="-1.153848657428677"><ele>326.0</ele><time>2026-03-30T15:36:43Z</time></trkpt><trkpt lat="42.13549327670825" lon="-1.154017581370662"><ele>326.0</ele><time>2026-03-30T15:36:44Z</time></trkpt><trkpt lat="42.135683221927884" lon="-1.1541801457453076"><ele>326.0</ele><time>2026-03-30T15:36:45Z</time></trkpt><trkpt lat="42.135874175238904" lon="-1.1543426810117523"><ele>326.0</ele><time>2026-03-30T15:36:46Z</time></trkpt><trkpt lat="42.13606498299606" lon="-1.1545104665546893"><ele>326.0</ele><time>2026-03-30T15:36:47Z</time></trkpt><trkpt lat="42.13625362489031" lon="-1.1546750455825516"><ele>326.0</ele><time>2026-03-30T15:36:48Z</time></trkpt><trkpt lat="42.13644504979355" lon="-1.1548372213013036"><ele>326.0</ele><time>2026-03-30T15:36:49Z</time></trkpt><trkpt lat="42.136636541519465" lon="-1.1549993358883648"><ele>326.0</ele><time>2026-03-30T15:36:50Z</time></trkpt><trkpt lat="42.13683274486003" lon="-1.1551740942107653"><ele>326.0</ele><time>2026-03-30T15:36:51Z</time></trkpt><trkpt lat="42.1370307609481" lon="-1.1553489766910188"><ele>326.0</ele><time>2026-03-30T15:36:52Z</time></trkpt><trkpt lat="42.137230933520804" lon="-1.1555198448942998"><ele>326.0</ele><time>2026-03-30T15:36:53Z</time></trkpt><trkpt lat="42.137437279202224" lon="-1.1556965785635194"><ele>328.0</ele><time>2026-03-30T15:36:54Z</time></trkpt><trkpt lat="42.137644837955875" lon="-1.1558762059132022"><ele>330.0</ele><time>2026-03-30T15:36:55Z</time></trkpt><trkpt lat="42.13784629471689" lon="-1.1560560685621624"><ele>330.0</ele><time>2026-03-30T15:36:56Z</time></trkpt><trkpt lat="42.138044175341435" lon="-1.1562284606385713"><ele>330.0</ele><time>2026-03-30T15:36:57Z</time></trkpt><trkpt lat="42.1382428254433" lon="-1.1563972095049493"><ele>331.5</ele><time>2026-03-30T15:36:58Z</time></trkpt><trkpt lat="42.13843993615916" lon="-1.1565654598498425"><ele>333.0</ele><time>2026-03-30T15:36:59Z</time></trkpt><trkpt lat="42.138637320998406" lon="-1.1567364416507582"><ele>333.0</ele><time>2026-03-30T15:37:00Z</time></trkpt><trkpt lat="42.13883664542838" lon="-1.156908064775875"><ele>333.0</ele><time>2026-03-30T15:37:01Z</time></trkpt><trkpt lat="42.13903729421448" lon="-1.1570833314269242"><ele>333.0</ele><time>2026-03-30T15:37:02Z</time></trkpt><trkpt lat="42.13923599497927" lon="-1.1572518994334882"><ele>333.0</ele><time>2026-03-30T15:37:03Z</time></trkpt><trkpt lat="42.13943255449368" lon="-1.1574132707040146"><ele>333.0</ele><time>2026-03-30T15:37:04Z</time></trkpt><trkpt lat="42.13962578031891" lon="-1.1575832043629493"><ele>333.0</ele><time>2026-03-30T15:37:05Z</time></trkpt><trkpt lat="42.13981773711609" lon="-1.1577610726824423"><ele>332.5</ele><time>2026-03-30T15:37:06Z</time></trkpt><trkpt lat="42.14001306920514" lon="-1.1579342959288514"><ele>332.0</ele><time>2026-03-30T15:37:07Z</time></trkpt><trkpt lat="42.14021401490231" lon="-1.1581010942130068"><ele>333.0</ele><time>2026-03-30T15:37:08Z</time></trkpt><trkpt lat="42.1404186843814" lon="-1.1582694909817968"><ele>334.0</ele><time>2026-03-30T15:37:09Z</time></trkpt><trkpt lat="42.14062139681871" lon="-1.158443758496623"><ele>334.0</ele><time>2026-03-30T15:37:10Z</time></trkpt><trkpt lat="42.14081932023774" lon="-1.1586205656278872"><ele>334.0</ele><time>2026-03-30T15:37:11Z</time></trkpt><trkpt lat="42.14101483861595" lon="-1.1587922412890492"><ele>334.0</ele><time>2026-03-30T15:37:12Z</time></trkpt><trkpt lat="42.141213621525125" lon="-1.1589632409748307"><ele>334.0</ele><time>2026-03-30T15:37:13Z</time></trkpt><trkpt lat="42.141412356319954" lon="-1.1591309522454558"><ele>336.0</ele><time>2026-03-30T15:37:14Z</time></trkpt><trkpt lat="42.14161010037532" lon="-1.1592943135030993"><ele>338.0</ele><time>2026-03-30T15:37:15Z</time></trkpt><trkpt lat="42.14180093020937" lon="-1.1594595261990046"><ele>338.0</ele><time>2026-03-30T15:37:16Z</time></trkpt><trkpt lat="42.14199249380491" lon="-1.1596396674273879"><ele>338.0</ele><time>2026-03-30T15:37:17Z</time></trkpt><trkpt lat="42.14219104201912" lon="-1.159814198358197"><ele>336.5</ele><time>2026-03-30T15:37:18Z</time></trkpt><trkpt lat="42.1423932619428" lon="-1.1599787809928397"><ele>335.0</ele><time>2026-03-30T15:37:19Z</time></trkpt><trkpt lat="42.14259241092598" lon="-1.1601437913836161"><ele>335.0</ele><time>2026-03-30T15:37:20Z</time></trkpt><trkpt lat="42.1427899335086" lon="-1.160315644186868"><ele>335.0</ele><time>2026-03-30T15:37:21Z</time></trkpt><trkpt lat="42.142988494381065" lon="-1.1604928012637155"><ele>335.0</ele><time>2026-03-30T15:37:22Z</time></trkpt><trkpt lat="42.14318950064566" lon="-1.160672312756624"><ele>335.0</ele><time>2026-03-30T15:37:23Z</time></trkpt><trkpt lat="42.1433866735585" lon="-1.1608387886923304"><ele>336.0</ele><time>2026-03-30T15:37:24Z</time></trkpt><trkpt lat="42.14358298985254" lon="-1.1609996960227968"><ele>337.0</ele><time>2026-03-30T15:37:25Z</time></trkpt><trkpt lat="42.143775746257724" lon="-1.161167314561555"><ele>337.0</ele><time>2026-03-30T15:37:26Z</time></trkpt><trkpt lat="42.14396685674004" lon="-1.1613376019449753"><ele>337.0</ele><time>2026-03-30T15:37:27Z</time></trkpt><trkpt lat="42.144155779219965" lon="-1.1615060932823797"><ele>336.0</ele><time>2026-03-30T15:37:28Z</time></trkpt><trkpt lat="42.14434998348785" lon="-1.1616701453263156"><ele>335.0</ele><time>2026-03-30T15:37:29Z</time></trkpt><trkpt lat="42.14454528553267" lon="-1.1618303331234578"><ele>335.0</ele><time>2026-03-30T15:37:30Z</time></trkpt><trkpt lat="42.144737941486106" lon="-1.1619953093355013"><ele>335.0</ele><time>2026-03-30T15:37:31Z</time></trkpt><trkpt lat="42.14492474824448" lon="-1.1621599063669317"><ele>335.6666666666667</ele><time>2026-03-30T15:37:32Z</time></trkpt><trkpt lat="42.145111369223784" lon="-1.1623242803096514"><ele>336.3333333333333</ele><time>2026-03-30T15:37:33Z</time></trkpt><trkpt lat="42.14529946755227" lon="-1.1624876109820292"><ele>337.0</ele><time>2026-03-30T15:37:34Z</time></trkpt><trkpt lat="42.14549223352643" lon="-1.1626506519696254"><ele>337.0</ele><time>2026-03-30T15:37:35Z</time></trkpt><trkpt lat="42.14568413997321" lon="-1.1628197617511373"><ele>337.0</ele><time>2026-03-30T15:37:36Z</time></trkpt><trkpt lat="42.14587931055065" lon="-1.162990918962897"><ele>337.0</ele><time>2026-03-30T15:37:37Z</time></trkpt><trkpt lat="42.146076825329935" lon="-1.1631614819309266"><ele>337.0</ele><time>2026-03-30T15:37:38Z</time></trkpt><trkpt lat="42.14627759036504" lon="-1.163328749140078"><ele>337.0</ele><time>2026-03-30T15:37:39Z</time></trkpt><trkpt lat="42.1464770928044" lon="-1.1634977327852245"><ele>337.0</ele><time>2026-03-30T15:37:40Z</time></trkpt><trkpt lat="42.14667145767595" lon="-1.1636711455860995"><ele>337.5</ele><time>2026-03-30T15:37:41Z</time></trkpt><trkpt lat="42.14686778550693" lon="-1.163844908105584"><ele>338.0</ele><time>2026-03-30T15:37:42Z</time></trkpt><trkpt lat="42.14707080626753" lon="-1.1640150342674485"><ele>337.5</ele><time>2026-03-30T15:37:43Z</time></trkpt><trkpt lat="42.14727093501142" lon="-1.1641848835165345"><ele>337.0</ele><time>2026-03-30T15:37:44Z</time></trkpt><trkpt lat="42.147467111172745" lon="-1.1643525529566912"><ele>339.0</ele><time>2026-03-30T15:37:45Z</time></trkpt><trkpt lat="42.14765890245269" lon="-1.1645165670415507"><ele>341.0</ele><time>2026-03-30T15:37:46Z</time></trkpt><trkpt lat="42.14785118160342" lon="-1.1646832473462843"><ele>341.0</ele><time>2026-03-30T15:37:47Z</time></trkpt><trkpt lat="42.14804296387518" lon="-1.1648531569052818"><ele>341.0</ele><time>2026-03-30T15:37:48Z</time></trkpt><trkpt lat="42.14823947037163" lon="-1.1650253955196606"><ele>340.5</ele><time>2026-03-30T15:37:49Z</time></trkpt><trkpt lat="42.14843780895851" lon="-1.1651981185209743"><ele>340.0</ele><time>2026-03-30T15:37:50Z</time></trkpt><trkpt lat="42.14863957014054" lon="-1.1653757450280227"><ele>340.0</ele><time>2026-03-30T15:37:51Z</time></trkpt><trkpt lat="42.14884478480552" lon="-1.1655543974063745"><ele>340.0</ele><time>2026-03-30T15:37:52Z</time></trkpt><trkpt lat="42.14905368749451" lon="-1.1657336564156122"><ele>340.0</ele><time>2026-03-30T15:37:53Z</time></trkpt><trkpt lat="42.14926816408427" lon="-1.1659185200019386"><ele>340.0</ele><time>2026-03-30T15:37:54Z</time></trkpt><trkpt lat="42.14948920135785" lon="-1.1661066607026898"><ele>340.0</ele><time>2026-03-30T15:37:55Z</time></trkpt><trkpt lat="42.14971405729693" lon="-1.1662938973379455"><ele>340.0</ele><time>2026-03-30T15:37:56Z</time></trkpt><trkpt lat="42.14992857342388" lon="-1.1664738536782038"><ele>341.5</ele><time>2026-03-30T15:37:57Z</time></trkpt><trkpt lat="42.15013665231828" lon="-1.166661053199711"><ele>343.0</ele><time>2026-03-30T15:37:58Z</time></trkpt><trkpt lat="42.150344608453764" lon="-1.1668469953709788"><ele>343.0</ele><time>2026-03-30T15:37:59Z</time></trkpt><trkpt lat="42.15055246552378" lon="-1.1670267443259295"><ele>343.0</ele><time>2026-03-30T15:38:00Z</time></trkpt><trkpt lat="42.15075606985837" lon="-1.1672073547266177"><ele>343.0</ele><time>2026-03-30T15:38:01Z</time></trkpt><trkpt lat="42.15096152870546" lon="-1.167386435872406"><ele>343.0</ele><time>2026-03-30T15:38:02Z</time></trkpt><trkpt lat="42.15117674107637" lon="-1.16756048163092"><ele>343.0</ele><time>2026-03-30T15:38:03Z</time></trkpt><trkpt lat="42.15138600180655" lon="-1.167740337049863"><ele>343.0</ele><time>2026-03-30T15:38:04Z</time></trkpt><trkpt lat="42.15159181627139" lon="-1.1679268376692051"><ele>343.0</ele><time>2026-03-30T15:38:05Z</time></trkpt><trkpt lat="42.15179848593395" lon="-1.1681041457021604"><ele>343.0</ele><time>2026-03-30T15:38:06Z</time></trkpt><trkpt lat="42.15200086585314" lon="-1.1682812891777166"><ele>344.0</ele><time>2026-03-30T15:38:07Z</time></trkpt><trkpt lat="42.152203522831975" lon="-1.1684579233562948"><ele>345.0</ele><time>2026-03-30T15:38:08Z</time></trkpt><trkpt lat="42.152403325845455" lon="-1.168629515843693"><ele>345.0</ele><time>2026-03-30T15:38:09Z</time></trkpt><trkpt lat="42.152603062722825" lon="-1.1688045272186305"><ele>345.0</ele><time>2026-03-30T15:38:10Z</time></trkpt><trkpt lat="42.152803360421046" lon="-1.1689764629842665"><ele>344.5</ele><time>2026-03-30T15:38:11Z</time></trkpt><trkpt lat="42.15300649784728" lon="-1.1691486285971564"><ele>344.0</ele><time>2026-03-30T15:38:12Z</time></trkpt><trkpt lat="42.153207996251645" lon="-1.169329880629225"><ele>345.5</ele><time>2026-03-30T15:38:13Z</time></trkpt><trkpt lat="42.153411455521834" lon="-1.1695094301394622"><ele>347.0</ele><time>2026-03-30T15:38:14Z</time></trkpt><trkpt lat="42.15361878588099" lon="-1.1696847461833089"><ele>347.0</ele><time>2026-03-30T15:38:15Z</time></trkpt><trkpt lat="42.15382690723815" lon="-1.1698601676492004"><ele>347.0</ele><time>2026-03-30T15:38:16Z</time></trkpt><trkpt lat="42.154035624732664" lon="-1.1700375208684926"><ele>348.5</ele><time>2026-03-30T15:38:17Z</time></trkpt><trkpt lat="42.15424792596795" lon="-1.1702195218803724"><ele>350.0</ele><time>2026-03-30T15:38:18Z</time></trkpt><trkpt lat="42.15446734313624" lon="-1.1704100544910057"><ele>350.0</ele><time>2026-03-30T15:38:19Z</time></trkpt><trkpt lat="42.154692450274446" lon="-1.1706029667637925"><ele>350.0</ele><time>2026-03-30T15:38:20Z</time></trkpt><trkpt lat="42.15489766286384" lon="-1.170778212550811"><ele>349.5</ele><time>2026-03-30T15:38:21Z</time></trkpt><trkpt lat="42.1550996443822" lon="-1.170951509155529"><ele>349.0</ele><time>2026-03-30T15:38:22Z</time></trkpt><trkpt lat="42.155308405496896" lon="-1.1711333633270562"><ele>349.0</ele><time>2026-03-30T15:38:23Z</time></trkpt><trkpt lat="42.155522594452314" lon="-1.1713172554532478"><ele>349.0</ele><time>2026-03-30T15:38:24Z</time></trkpt><trkpt lat="42.15573809839069" lon="-1.1714985563985103"><ele>350.0</ele><time>2026-03-30T15:38:25Z</time></trkpt><trkpt lat="42.15595156956395" lon="-1.1716839556395189"><ele>351.0</ele><time>2026-03-30T15:38:26Z</time></trkpt><trkpt lat="42.1561622679741" lon="-1.171867720564323"><ele>351.0</ele><time>2026-03-30T15:38:27Z</time></trkpt><trkpt lat="42.156376020666144" lon="-1.1720465899619625"><ele>351.0</ele><time>2026-03-30T15:38:28Z</time></trkpt><trkpt lat="42.15659242368635" lon="-1.1722366100047636"><ele>351.5</ele><time>2026-03-30T15:38:29Z</time></trkpt><trkpt lat="42.156814897300315" lon="-1.1724366380538502"><ele>352.0</ele><time>2026-03-30T15:38:30Z</time></trkpt><trkpt lat="42.15704105629058" lon="-1.1726295422442083"><ele>352.0</ele><time>2026-03-30T15:38:31Z</time></trkpt><trkpt lat="42.15726629439118" lon="-1.172819037844298"><ele>352.0</ele><time>2026-03-30T15:38:32Z</time></trkpt><trkpt lat="42.15748923846618" lon="-1.1730096549535487"><ele>352.0</ele><time>2026-03-30T15:38:33Z</time></trkpt><trkpt lat="42.157708413041796" lon="-1.1731995189474167"><ele>352.0</ele><time>2026-03-30T15:38:34Z</time></trkpt><trkpt lat="42.15792576065482" lon="-1.1733881882371686"><ele>352.0</ele><time>2026-03-30T15:38:35Z</time></trkpt><trkpt lat="42.15813879010183" lon="-1.1735736494991615"><ele>352.0</ele><time>2026-03-30T15:38:36Z</time></trkpt><trkpt lat="42.15835265186167" lon="-1.173758574380653"><ele>352.0</ele><time>2026-03-30T15:38:37Z</time></trkpt><trkpt lat="42.15856835966896" lon="-1.1739406731785405"><ele>352.0</ele><time>2026-03-30T15:38:38Z</time></trkpt><trkpt lat="42.158781497591086" lon="-1.174127615069166"><ele>352.5</ele><time>2026-03-30T15:38:39Z</time></trkpt><trkpt lat="42.158994955353364" lon="-1.1743158336521784"><ele>353.0</ele><time>2026-03-30T15:38:40Z</time></trkpt><trkpt lat="42.15920499852037" lon="-1.1745005280576368"><ele>353.5</ele><time>2026-03-30T15:38:41Z</time></trkpt><trkpt lat="42.15941425631203" lon="-1.1746884653554623"><ele>354.0</ele><time>2026-03-30T15:38:42Z</time></trkpt><trkpt lat="42.1596284067862" lon="-1.1748691216786094"><ele>354.5</ele><time>2026-03-30T15:38:43Z</time></trkpt><trkpt lat="42.15984342333631" lon="-1.175049918985953"><ele>355.0</ele><time>2026-03-30T15:38:44Z</time></trkpt><trkpt lat="42.160056689393656" lon="-1.175234390023162"><ele>355.0</ele><time>2026-03-30T15:38:45Z</time></trkpt><trkpt lat="42.16027056029801" lon="-1.175422212983392"><ele>355.0</ele><time>2026-03-30T15:38:46Z</time></trkpt><trkpt lat="42.16048608828795" lon="-1.1756094420240684"><ele>355.5</ele><time>2026-03-30T15:38:47Z</time></trkpt><trkpt lat="42.16070159550677" lon="-1.1757968428657102"><ele>356.0</ele><time>2026-03-30T15:38:48Z</time></trkpt><trkpt lat="42.16091863976461" lon="-1.1759808149563151"><ele>356.0</ele><time>2026-03-30T15:38:49Z</time></trkpt><trkpt lat="42.161137327246266" lon="-1.176166055315791"><ele>356.0</ele><time>2026-03-30T15:38:50Z</time></trkpt><trkpt lat="42.161353685394396" lon="-1.176353083206764"><ele>356.5</ele><time>2026-03-30T15:38:51Z</time></trkpt><trkpt lat="42.16156897404027" lon="-1.1765380168861233"><ele>357.0</ele><time>2026-03-30T15:38:52Z</time></trkpt><trkpt lat="42.16178507627267" lon="-1.1767243366502256"><ele>357.0</ele><time>2026-03-30T15:38:53Z</time></trkpt><trkpt lat="42.161999111528594" lon="-1.1769108953937142"><ele>357.0</ele><time>2026-03-30T15:38:54Z</time></trkpt><trkpt lat="42.16221203444899" lon="-1.1770955523339122"><ele>358.0</ele><time>2026-03-30T15:38:55Z</time></trkpt><trkpt lat="42.16242417437105" lon="-1.1772794629564174"><ele>359.0</ele><time>2026-03-30T15:38:56Z</time></trkpt><trkpt lat="42.16262604404739" lon="-1.177457136731549"><ele>359.0</ele><time>2026-03-30T15:38:57Z</time></trkpt><trkpt lat="42.162836386797274" lon="-1.177635933390534"><ele>359.0</ele><time>2026-03-30T15:38:58Z</time></trkpt><trkpt lat="42.163041798323256" lon="-1.1778102072842085"><ele>359.0</ele><time>2026-03-30T15:38:59Z</time></trkpt><trkpt lat="42.16324693377058" lon="-1.1779873770044735"><ele>359.0</ele><time>2026-03-30T15:39:00Z</time></trkpt><trkpt lat="42.163447932014186" lon="-1.1781660488899057"><ele>359.0</ele><time>2026-03-30T15:39:01Z</time></trkpt><trkpt lat="42.163648617947324" lon="-1.1783420242509652"><ele>359.0</ele><time>2026-03-30T15:39:02Z</time></trkpt><trkpt lat="42.163852732640166" lon="-1.178515947375458"><ele>359.0</ele><time>2026-03-30T15:39:03Z</time></trkpt><trkpt lat="42.164059193349765" lon="-1.1786976892671701"><ele>359.0</ele><time>2026-03-30T15:39:04Z</time></trkpt><trkpt lat="42.16427140357821" lon="-1.1788852886342245"><ele>360.5</ele><time>2026-03-30T15:39:05Z</time></trkpt><trkpt lat="42.16448672902169" lon="-1.1790747295928508"><ele>362.0</ele><time>2026-03-30T15:39:06Z</time></trkpt><trkpt lat="42.1647046979828" lon="-1.1792600619665703"><ele>362.5</ele><time>2026-03-30T15:39:07Z</time></trkpt><trkpt lat="42.16492153165807" lon="-1.1794460574545609"><ele>363.0</ele><time>2026-03-30T15:39:08Z</time></trkpt><trkpt lat="42.165138634275465" lon="-1.1796325649993982"><ele>363.0</ele><time>2026-03-30T15:39:09Z</time></trkpt><trkpt lat="42.16535483176664" lon="-1.179817943241869"><ele>363.0</ele><time>2026-03-30T15:39:10Z</time></trkpt><trkpt lat="42.16556740014055" lon="-1.180002198268512"><ele>363.5</ele><time>2026-03-30T15:39:11Z</time></trkpt><trkpt lat="42.16578008725464" lon="-1.180188600887073"><ele>364.0</ele><time>2026-03-30T15:39:12Z</time></trkpt><trkpt lat="42.16599402694361" lon="-1.1803740159382823"><ele>364.0</ele><time>2026-03-30T15:39:13Z</time></trkpt><trkpt lat="42.16621098124333" lon="-1.1805604403396939"><ele>364.0</ele><time>2026-03-30T15:39:14Z</time></trkpt><trkpt lat="42.16643010008433" lon="-1.1807493230360777"><ele>364.0</ele><time>2026-03-30T15:39:15Z</time></trkpt><trkpt lat="42.16664675291776" lon="-1.1809349991842846"><ele>364.0</ele><time>2026-03-30T15:39:16Z</time></trkpt><trkpt lat="42.16686250284806" lon="-1.181119628652291"><ele>364.0</ele><time>2026-03-30T15:39:17Z</time></trkpt><trkpt lat="42.167078324696234" lon="-1.181306827922461"><ele>364.0</ele><time>2026-03-30T15:39:18Z</time></trkpt><trkpt lat="42.167290456963705" lon="-1.181491079820449"><ele>365.0</ele><time>2026-03-30T15:39:19Z</time></trkpt><trkpt lat="42.16750488868166" lon="-1.1816788984037314"><ele>366.0</ele><time>2026-03-30T15:39:20Z</time></trkpt><trkpt lat="42.16772007443606" lon="-1.1818673545062117"><ele>366.0</ele><time>2026-03-30T15:39:21Z</time></trkpt><trkpt lat="42.16793960234025" lon="-1.1820567580624108"><ele>366.0</ele><time>2026-03-30T15:39:22Z</time></trkpt><trkpt lat="42.168159869955986" lon="-1.1822466636432434"><ele>365.0</ele><time>2026-03-30T15:39:23Z</time></trkpt><trkpt lat="42.16837949436317" lon="-1.1824376438596655"><ele>364.0</ele><time>2026-03-30T15:39:24Z</time></trkpt><trkpt lat="42.168598324187734" lon="-1.182625118251175"><ele>364.0</ele><time>2026-03-30T15:39:25Z</time></trkpt><trkpt lat="42.168816484879414" lon="-1.1828164604599491"><ele>364.0</ele><time>2026-03-30T15:39:26Z</time></trkpt><trkpt lat="42.16903305313352" lon="-1.183008848616021"><ele>365.5</ele><time>2026-03-30T15:39:27Z</time></trkpt><trkpt lat="42.16925315572263" lon="-1.1831999090985388"><ele>367.0</ele><time>2026-03-30T15:39:28Z</time></trkpt><trkpt lat="42.169478750047965" lon="-1.1833945147080722"><ele>367.0</ele><time>2026-03-30T15:39:29Z</time></trkpt><trkpt lat="42.16971421158624" lon="-1.1835972245038304"><ele>367.0</ele><time>2026-03-30T15:39:30Z</time></trkpt><trkpt lat="42.16995283817683" lon="-1.1838035220666214"><ele>367.5</ele><time>2026-03-30T15:39:31Z</time></trkpt><trkpt lat="42.1701820076681" lon="-1.1839976427532517"><ele>368.0</ele><time>2026-03-30T15:39:32Z</time></trkpt><trkpt lat="42.17040513307614" lon="-1.184191202291243"><ele>368.0</ele><time>2026-03-30T15:39:33Z</time></trkpt><trkpt lat="42.17062483974046" lon="-1.184384566441879"><ele>368.0</ele><time>2026-03-30T15:39:34Z</time></trkpt><trkpt lat="42.17083999172681" lon="-1.1845758628314487"><ele>368.5</ele><time>2026-03-30T15:39:35Z</time></trkpt><trkpt lat="42.17105979838196" lon="-1.184766183674194"><ele>369.0</ele><time>2026-03-30T15:39:36Z</time></trkpt><trkpt lat="42.17127915652715" lon="-1.1849540047882356"><ele>369.0</ele><time>2026-03-30T15:39:37Z</time></trkpt><trkpt lat="42.17149519150654" lon="-1.1851412042715572"><ele>369.0</ele><time>2026-03-30T15:39:38Z</time></trkpt><trkpt lat="42.17171274425336" lon="-1.1853311780612255"><ele>369.0</ele><time>2026-03-30T15:39:39Z</time></trkpt><trkpt lat="42.17192223183315" lon="-1.1855171907386257"><ele>369.0</ele><time>2026-03-30T15:39:40Z</time></trkpt><trkpt lat="42.17213145477201" lon="-1.1856999232471814"><ele>369.0</ele><time>2026-03-30T15:39:41Z</time></trkpt><trkpt lat="42.17234746151659" lon="-1.185887607257437"><ele>369.0</ele><time>2026-03-30T15:39:42Z</time></trkpt><trkpt lat="42.17256192074863" lon="-1.1860741321884654"><ele>371.0</ele><time>2026-03-30T15:39:43Z</time></trkpt><trkpt lat="42.172771753873285" lon="-1.186257940566254"><ele>373.0</ele><time>2026-03-30T15:39:44Z</time></trkpt><trkpt lat="42.17298135490485" lon="-1.1864407184137833"><ele>373.5</ele><time>2026-03-30T15:39:45Z</time></trkpt><trkpt lat="42.173189928331446" lon="-1.1866193496225486"><ele>374.0</ele><time>2026-03-30T15:39:46Z</time></trkpt><trkpt lat="42.173399539531616" lon="-1.186796552524383"><ele>374.0</ele><time>2026-03-30T15:39:47Z</time></trkpt><trkpt lat="42.17359965690701" lon="-1.1869702935040904"><ele>374.0</ele><time>2026-03-30T15:39:48Z</time></trkpt><trkpt lat="42.17377854812278" lon="-1.1871273509733442"><ele>374.0</ele><time>2026-03-30T15:39:49Z</time></trkpt><trkpt lat="42.17394949257672" lon="-1.1872742591000642"><ele>374.0</ele><time>2026-03-30T15:39:50Z</time></trkpt><trkpt lat="42.174105838163065" lon="-1.1874083129901374"><ele>374.0</ele><time>2026-03-30T15:39:51Z</time></trkpt><trkpt lat="42.17426684649433" lon="-1.1875471115147769"><ele>373.75</ele><time>2026-03-30T15:39:52Z</time></trkpt><trkpt lat="42.1744227366401" lon="-1.1876724262009544"><ele>373.5</ele><time>2026-03-30T15:39:53Z</time></trkpt><trkpt lat="42.17454537731708" lon="-1.1877598682712727"><ele>373.25</ele><time>2026-03-30T15:39:54Z</time></trkpt><trkpt lat="42.17463073441142" lon="-1.1878225207737851"><ele>373.0</ele><time>2026-03-30T15:39:55Z</time></trkpt><trkpt lat="42.17472207000881" lon="-1.1878377819232027"><ele>373.0</ele><time>2026-03-30T15:39:56Z</time></trkpt><trkpt lat="42.174811696386165" lon="-1.1877679473845373"><ele>373.0</ele><time>2026-03-30T15:39:57Z</time></trkpt><trkpt lat="42.174900531985905" lon="-1.1876400819636121"><ele>373.0</ele><time>2026-03-30T15:39:58Z</time></trkpt><trkpt lat="42.17502022589074" lon="-1.187495993448609"><ele>373.0</ele><time>2026-03-30T15:39:59Z</time></trkpt><trkpt lat="42.175161817821326" lon="-1.1873731644588965"><ele>372.66666666666663</ele><time>2026-03-30T15:40:00Z</time></trkpt><trkpt lat="42.17530612539464" lon="-1.18731028898958"><ele>372.3333333333333</ele><time>2026-03-30T15:40:01Z</time></trkpt><trkpt lat="42.1754519149482" lon="-1.1872643778800496"><ele>372.0</ele><time>2026-03-30T15:40:02Z</time></trkpt><trkpt lat="42.175616588374474" lon="-1.187202864302413"><ele>372.0</ele><time>2026-03-30T15:40:03Z</time></trkpt><trkpt lat="42.17580007904943" lon="-1.1871283938792274"><ele>372.0</ele><time>2026-03-30T15:40:04Z</time></trkpt><trkpt lat="42.17599196644782" lon="-1.1870588329815275"><ele>372.0</ele><time>2026-03-30T15:40:05Z</time></trkpt><trkpt lat="42.17618544549713" lon="-1.186997891738663"><ele>372.0</ele><time>2026-03-30T15:40:06Z</time></trkpt><trkpt lat="42.17637830224663" lon="-1.1869420458625002"><ele>372.0</ele><time>2026-03-30T15:40:07Z</time></trkpt><trkpt lat="42.17657180561185" lon="-1.1868812693426707"><ele>372.0</ele><time>2026-03-30T15:40:08Z</time></trkpt><trkpt lat="42.17676978472652" lon="-1.1868301067298148"><ele>373.0</ele><time>2026-03-30T15:40:09Z</time></trkpt><trkpt lat="42.176981203352526" lon="-1.1868038694924077"><ele>374.0</ele><time>2026-03-30T15:40:10Z</time></trkpt><trkpt lat="42.177195968072226" lon="-1.1867912956891844"><ele>375.0</ele><time>2026-03-30T15:40:11Z</time></trkpt><trkpt lat="42.177412077491184" lon="-1.1867766876323136"><ele>375.3333333333333</ele><time>2026-03-30T15:40:12Z</time></trkpt><trkpt lat="42.177603711081474" lon="-1.1867703489485997"><ele>375.66666666666663</ele><time>2026-03-30T15:40:13Z</time></trkpt><trkpt lat="42.17776333075256" lon="-1.1867685388028313"><ele>376.0</ele><time>2026-03-30T15:40:14Z</time></trkpt><trkpt lat="42.17789472718112" lon="-1.1867669031927242"><ele>376.0</ele><time>2026-03-30T15:40:15Z</time></trkpt><trkpt lat="42.17800505359629" lon="-1.1867659464730442"><ele>376.0</ele><time>2026-03-30T15:40:16Z</time></trkpt><trkpt lat="42.178086374851006" lon="-1.1867546522098191"><ele>376.0</ele><time>2026-03-30T15:40:17Z</time></trkpt><trkpt lat="42.178148156858235" lon="-1.186623886453232"><ele>376.0</ele><time>2026-03-30T15:40:19Z</time></trkpt><trkpt lat="42.178131645283926" lon="-1.1865367689615987"><ele>376.0</ele><time>2026-03-30T15:40:20Z</time></trkpt><trkpt lat="42.17807055796025" lon="-1.1864471706575843"><ele>377.0</ele><time>2026-03-30T15:40:21Z</time></trkpt><trkpt lat="42.17798747072353" lon="-1.1863681834404833"><ele>378.0</ele><time>2026-03-30T15:40:22Z</time></trkpt><trkpt lat="42.17789731203654" lon="-1.1862781998135792"><ele>379.0</ele><time>2026-03-30T15:40:23Z</time></trkpt><trkpt lat="42.17780109806181" lon="-1.1861729525524038"><ele>380.0</ele><time>2026-03-30T15:40:24Z</time></trkpt><trkpt lat="42.177703594954586" lon="-1.1860620522634908"><ele>380.0</ele><time>2026-03-30T15:40:25Z</time></trkpt><trkpt lat="42.17760187772257" lon="-1.185954776886821"><ele>380.0</ele><time>2026-03-30T15:40:26Z</time></trkpt><trkpt lat="42.177506793489364" lon="-1.1858509720744235"><ele>380.0</ele><time>2026-03-30T15:40:27Z</time></trkpt><trkpt lat="42.17742363661527" lon="-1.1857739414303712"><ele>380.0</ele><time>2026-03-30T15:40:28Z</time></trkpt><trkpt lat="42.177367329867245" lon="-1.1856997839875303"><ele>380.0</ele><time>2026-03-30T15:40:29Z</time></trkpt><trkpt lat="42.177328805520844" lon="-1.1856048874531484"><ele>380.5</ele><time>2026-03-30T15:40:30Z</time></trkpt><trkpt lat="42.1773345551167" lon="-1.1855089399038363"><ele>381.0</ele><time>2026-03-30T15:40:31Z</time></trkpt><trkpt lat="42.17736344085624" lon="-1.1854214568055848"><ele>381.5</ele><time>2026-03-30T15:40:32Z</time></trkpt><trkpt lat="42.177415398402296" lon="-1.1853404488392503"><ele>382.0</ele><time>2026-03-30T15:40:33Z</time></trkpt><trkpt lat="42.17747841692384" lon="-1.1852779284868458"><ele>382.5</ele><time>2026-03-30T15:40:34Z</time></trkpt><trkpt lat="42.17754722620302" lon="-1.185243884438752"><ele>383.0</ele><time>2026-03-30T15:40:35Z</time></trkpt><trkpt lat="42.17763002712603" lon="-1.1852284191118707"><ele>383.0</ele><time>2026-03-30T15:40:36Z</time></trkpt><trkpt lat="42.177719049613785" lon="-1.1852231788089291"><ele>383.0</ele><time>2026-03-30T15:40:37Z</time></trkpt><trkpt lat="42.177804522768966" lon="-1.1852190490234422"><ele>383.0</ele><time>2026-03-30T15:40:38Z</time></trkpt><trkpt lat="42.177898489050826" lon="-1.1852195417794882"><ele>383.0</ele><time>2026-03-30T15:40:39Z</time></trkpt><trkpt lat="42.17799361338247" lon="-1.1852141254563549"><ele>383.0</ele><time>2026-03-30T15:40:40Z</time></trkpt><trkpt lat="42.17808763825447" lon="-1.1852110177145558"><ele>383.0</ele><time>2026-03-30T15:40:41Z</time></trkpt><trkpt lat="42.17817697767197" lon="-1.1852135786236617"><ele>383.0</ele><time>2026-03-30T15:40:42Z</time></trkpt><trkpt lat="42.17825321347017" lon="-1.1851912965870504"><ele>383.0</ele><time>2026-03-30T15:40:43Z</time></trkpt><trkpt lat="42.17832661936948" lon="-1.1851776101647682"><ele>383.0</ele><time>2026-03-30T15:40:44Z</time></trkpt><trkpt lat="42.1783961341541" lon="-1.1851659303674662"><ele>383.0</ele><time>2026-03-30T15:40:45Z</time></trkpt><trkpt lat="42.178465652043116" lon="-1.1851125797575695"><ele>383.0</ele><time>2026-03-30T15:40:47Z</time></trkpt><trkpt lat="42.17842416269977" lon="-1.1850046014188393"><ele>382.83333333333337</ele><time>2026-03-30T15:40:49Z</time></trkpt><trkpt lat="42.178302190108326" lon="-1.1849352294070934"><ele>382.6666666666667</ele><time>2026-03-30T15:40:51Z</time></trkpt><trkpt lat="42.17822676135673" lon="-1.184895743806255"><ele>382.5</ele><time>2026-03-30T15:40:52Z</time></trkpt><trkpt lat="42.17816200353345" lon="-1.1848456183791214"><ele>382.3333333333333</ele><time>2026-03-30T15:40:53Z</time></trkpt><trkpt lat="42.17810934676792" lon="-1.1847889146325394"><ele>382.16666666666663</ele><time>2026-03-30T15:40:54Z</time></trkpt><trkpt lat="42.17807778126541" lon="-1.1847145370006313"><ele>382.0</ele><time>2026-03-30T15:40:57Z</time></trkpt><trkpt lat="42.17807300339784" lon="-1.1846001469132308"><ele>381.8</ele><time>2026-03-30T15:41:00Z</time></trkpt><trkpt lat="42.1781968495064" lon="-1.1845649649976888"><ele>381.6</ele><time>2026-03-30T15:41:02Z</time></trkpt><trkpt lat="42.17813109469202" lon="-1.1845893152987192"><ele>381.40000000000003</ele><time>2026-03-30T15:41:09Z</time></trkpt><trkpt lat="42.178056889218944" lon="-1.184539942933351"><ele>381.20000000000005</ele><time>2026-03-30T15:41:10Z</time></trkpt><trkpt lat="42.177979502421074" lon="-1.1844809054576828"><ele>381.0</ele><time>2026-03-30T15:41:11Z</time></trkpt><trkpt lat="42.177875373890124" lon="-1.1844360172189599"><ele>381.0</ele><time>2026-03-30T15:41:12Z</time></trkpt><trkpt lat="42.17781085412422" lon="-1.1843646303682125"><ele>381.0</ele><time>2026-03-30T15:41:13Z</time></trkpt><trkpt lat="42.177717326932424" lon="-1.1842623760711921"><ele>381.0</ele><time>2026-03-30T15:41:15Z</time></trkpt><trkpt lat="42.17764301741496" lon="-1.184183446103261"><ele>381.0</ele><time>2026-03-30T15:41:17Z</time></trkpt><trkpt lat="42.17759709311852" lon="-1.1841222877353226"><ele>381.0</ele><time>2026-03-30T15:41:20Z</time></trkpt><trkpt lat="42.177530064224506" lon="-1.1841179728300286"><ele>381.0</ele><time>2026-03-30T15:41:25Z</time></trkpt><trkpt lat="42.17759371070869" lon="-1.184138634208939"><ele>381.0</ele><time>2026-03-30T15:41:46Z</time></trkpt><trkpt lat="42.177532389431725" lon="-1.184118727651583"><ele>381.0</ele><time>2026-03-30T15:42:22Z</time></trkpt><trkpt lat="42.177353816211614" lon="-1.184022531241226"><ele>381.0</ele><time>2026-03-30T15:42:24Z</time></trkpt><trkpt lat="42.17760258794228" lon="-1.183757685017437"><ele>381.0</ele><time>2026-03-30T15:42:34Z</time></trkpt><trkpt lat="42.17760940671015" lon="-1.1836641389095035"><ele>381.0</ele><time>2026-03-30T15:42:41Z</time></trkpt><trkpt lat="42.17760225848331" lon="-1.1837529540449243"><ele>381.0</ele><time>2026-03-30T15:43:14Z</time></trkpt><trkpt lat="42.17758216964826" lon="-1.1838468091495797"><ele>381.0</ele><time>2026-03-30T15:43:20Z</time></trkpt><trkpt lat="42.17757252470763" lon="-1.1839326832436365"><ele>381.0</ele><time>2026-03-30T15:43:26Z</time></trkpt><trkpt lat="42.17759108460763" lon="-1.184024721082876"><ele>381.0</ele><time>2026-03-30T15:43:33Z</time></trkpt><trkpt lat="42.177556683792126" lon="-1.1841055919924537"><ele>381.0</ele><time>2026-03-30T15:43:56Z</time></trkpt><trkpt lat="42.177490137929155" lon="-1.1841152180841759"><ele>381.0</ele><time>2026-03-30T15:43:57Z</time></trkpt><trkpt lat="42.17741196563434" lon="-1.1840804222248775"><ele>381.0</ele><time>2026-03-30T15:43:58Z</time></trkpt><trkpt lat="42.17735447499969" lon="-1.1840208043019664"><ele>381.0</ele><time>2026-03-30T15:43:59Z</time></trkpt><trkpt lat="42.17731813619079" lon="-1.1839363075586617"><ele>381.0</ele><time>2026-03-30T15:44:00Z</time></trkpt><trkpt lat="42.177295175887025" lon="-1.183856360701998"><ele>381.0</ele><time>2026-03-30T15:44:01Z</time></trkpt><trkpt lat="42.177283042732476" lon="-1.1837417715293173"><ele>381.0</ele><time>2026-03-30T15:44:03Z</time></trkpt><trkpt lat="42.17719333470521" lon="-1.1837436982075564"><ele>381.0</ele><time>2026-03-30T15:44:04Z</time></trkpt><trkpt lat="42.17717368069781" lon="-1.1836558277650968"><ele>381.0</ele><time>2026-03-30T15:44:08Z</time></trkpt><trkpt lat="42.177255338338" lon="-1.1836895543701211"><ele>381.0</ele><time>2026-03-30T15:44:10Z</time></trkpt><trkpt lat="42.17730350794678" lon="-1.183790409099439"><ele>381.0</ele><time>2026-03-30T15:44:11Z</time></trkpt><trkpt lat="42.17733902090743" lon="-1.1839042571551845"><ele>381.0</ele><time>2026-03-30T15:44:12Z</time></trkpt><trkpt lat="42.177382576567645" lon="-1.184003058216514"><ele>381.0</ele><time>2026-03-30T15:44:13Z</time></trkpt><trkpt lat="42.17742865213923" lon="-1.18408540984891"><ele>381.0</ele><time>2026-03-30T15:44:14Z</time></trkpt><trkpt lat="42.177494395497504" lon="-1.1841239647667694"><ele>381.0</ele><time>2026-03-30T15:44:15Z</time></trkpt><trkpt lat="42.17759106790708" lon="-1.1840688233611767"><ele>381.0</ele><time>2026-03-30T15:44:17Z</time></trkpt><trkpt lat="42.17759236889994" lon="-1.1839201771611836"><ele>381.0</ele><time>2026-03-30T15:44:19Z</time></trkpt><trkpt lat="42.17759982004422" lon="-1.1838306784914199"><ele>381.0</ele><time>2026-03-30T15:44:20Z</time></trkpt><trkpt lat="42.1775967046626" lon="-1.1837327135783637"><ele>381.0</ele><time>2026-03-30T15:44:21Z</time></trkpt><trkpt lat="42.17758851638711" lon="-1.183606943562235"><ele>381.0</ele><time>2026-03-30T15:44:23Z</time></trkpt><trkpt lat="42.17756463290445" lon="-1.1835034085777727"><ele>381.0</ele><time>2026-03-30T15:44:26Z</time></trkpt><trkpt lat="42.177627937689465" lon="-1.1835582209895827"><ele>381.0</ele><time>2026-03-30T15:44:50Z</time></trkpt><trkpt lat="42.17761633649536" lon="-1.1836888906294187"><ele>381.0</ele><time>2026-03-30T15:45:12Z</time></trkpt><trkpt lat="42.17760078013016" lon="-1.1838072801628352"><ele>381.0</ele><time>2026-03-30T15:45:13Z</time></trkpt><trkpt lat="42.17758323038514" lon="-1.1839142003012781"><ele>381.0</ele><time>2026-03-30T15:45:14Z</time></trkpt><trkpt lat="42.17755662061277" lon="-1.1840433225898224"><ele>381.0</ele><time>2026-03-30T15:45:16Z</time></trkpt><trkpt lat="42.177478246895234" lon="-1.1840666120122207"><ele>381.0</ele><time>2026-03-30T15:45:19Z</time></trkpt><trkpt lat="42.177367549545515" lon="-1.1840099197315703"><ele>381.0</ele><time>2026-03-30T15:45:21Z</time></trkpt><trkpt lat="42.17732599532056" lon="-1.1839319661482341"><ele>381.0</ele><time>2026-03-30T15:45:22Z</time></trkpt><trkpt lat="42.17730190091773" lon="-1.183831480148833"><ele>381.0</ele><time>2026-03-30T15:45:23Z</time></trkpt><trkpt lat="42.17721612944576" lon="-1.183792662246736"><ele>381.0</ele><time>2026-03-30T15:45:24Z</time></trkpt><trkpt lat="42.17717935933072" lon="-1.1837168995878018"><ele>380.8333333333333</ele><time>2026-03-30T15:45:26Z</time></trkpt><trkpt lat="42.177096011548" lon="-1.1838099922114562"><ele>380.6666666666667</ele><time>2026-03-30T15:45:28Z</time></trkpt><trkpt lat="42.17706199155159" lon="-1.1839358059943996"><ele>380.5</ele><time>2026-03-30T15:45:30Z</time></trkpt><trkpt lat="42.17704122622849" lon="-1.1840181990017156"><ele>380.33333333333337</ele><time>2026-03-30T15:45:32Z</time></trkpt><trkpt lat="42.17705525683216" lon="-1.1841264043182775"><ele>380.1666666666667</ele><time>2026-03-30T15:45:47Z</time></trkpt><trkpt lat="42.177030441047975" lon="-1.1842139546785415"><ele>380.0</ele><time>2026-03-30T15:45:51Z</time></trkpt><trkpt lat="42.17703461453721" lon="-1.184299202758968"><ele>380.0</ele><time>2026-03-30T15:45:56Z</time></trkpt><trkpt lat="42.177027188467086" lon="-1.1843940383557714"><ele>380.0</ele><time>2026-03-30T15:46:01Z</time></trkpt><trkpt lat="42.17702715415486" lon="-1.184489625524687"><ele>380.0</ele><time>2026-03-30T15:46:04Z</time></trkpt><trkpt lat="42.17702279464716" lon="-1.1846017489991205"><ele>380.0</ele><time>2026-03-30T15:46:07Z</time></trkpt><trkpt lat="42.17699453104568" lon="-1.1847302599878333"><ele>380.0</ele><time>2026-03-30T15:46:10Z</time></trkpt><trkpt lat="42.17696815546287" lon="-1.1848240771471616"><ele>380.0</ele><time>2026-03-30T15:46:13Z</time></trkpt><trkpt lat="42.176992798621704" lon="-1.184919377233236"><ele>379.0</ele><time>2026-03-30T15:46:16Z</time></trkpt><trkpt lat="42.17696485148157" lon="-1.185000086177369"><ele>378.0</ele><time>2026-03-30T15:46:19Z</time></trkpt><trkpt lat="42.1769942998015" lon="-1.1851076098586273"><ele>377.0</ele><time>2026-03-30T15:46:22Z</time></trkpt><trkpt lat="42.17714602680676" lon="-1.1851745745238937"><ele>376.0</ele><time>2026-03-30T15:46:23Z</time></trkpt><trkpt lat="42.17719529814569" lon="-1.1852476220328985"><ele>375.0</ele><time>2026-03-30T15:46:25Z</time></trkpt><trkpt lat="42.17720871778152" lon="-1.185341178201115"><ele>375.0</ele><time>2026-03-30T15:46:28Z</time></trkpt><trkpt lat="42.1771249606085" lon="-1.1853797910338786"><ele>375.0</ele><time>2026-03-30T15:46:31Z</time></trkpt><trkpt lat="42.17704768273101" lon="-1.1853477929384082"><ele>375.0</ele><time>2026-03-30T15:46:33Z</time></trkpt><trkpt lat="42.17696175319749" lon="-1.1852867625945258"><ele>375.0</ele><time>2026-03-30T15:46:35Z</time></trkpt><trkpt lat="42.17690572381853" lon="-1.1851896001422406"><ele>375.0</ele><time>2026-03-30T15:46:37Z</time></trkpt><trkpt lat="42.17687067581698" lon="-1.185100537240308"><ele>375.0</ele><time>2026-03-30T15:46:39Z</time></trkpt><trkpt lat="42.17683219930958" lon="-1.1850294846368004"><ele>375.0</ele><time>2026-03-30T15:46:41Z</time></trkpt><trkpt lat="42.17679452723173" lon="-1.1849567377047374"><ele>375.0</ele><time>2026-03-30T15:46:43Z</time></trkpt><trkpt lat="42.17675958614756" lon="-1.1848828297157612"><ele>375.0</ele><time>2026-03-30T15:46:45Z</time></trkpt><trkpt lat="42.17672318891337" lon="-1.1848107077825067"><ele>375.0</ele><time>2026-03-30T15:46:47Z</time></trkpt><trkpt lat="42.17669962940705" lon="-1.1847239966192937"><ele>375.0</ele><time>2026-03-30T15:46:49Z</time></trkpt><trkpt lat="42.17665002648579" lon="-1.184628722838904"><ele>375.0</ele><time>2026-03-30T15:46:51Z</time></trkpt><trkpt lat="42.17659161182687" lon="-1.1845077460289428"><ele>375.0</ele><time>2026-03-30T15:46:53Z</time></trkpt><trkpt lat="42.17653531532747" lon="-1.1843795488680704"><ele>375.0</ele><time>2026-03-30T15:46:55Z</time></trkpt><trkpt lat="42.1764742383871" lon="-1.1843343300803133"><ele>375.0</ele><time>2026-03-30T15:46:56Z</time></trkpt><trkpt lat="42.17644045580828" lon="-1.18426040735951"><ele>375.0</ele><time>2026-03-30T15:46:57Z</time></trkpt><trkpt lat="42.176406063674236" lon="-1.1841814362796625"><ele>375.0</ele><time>2026-03-30T15:46:58Z</time></trkpt><trkpt lat="42.17634571258606" lon="-1.1840462464738124"><ele>375.0</ele><time>2026-03-30T15:47:00Z</time></trkpt><trkpt lat="42.17630787338358" lon="-1.1839193837660644"><ele>375.2</ele><time>2026-03-30T15:47:02Z</time></trkpt><trkpt lat="42.17627092153071" lon="-1.1838079977787273"><ele>375.4</ele><time>2026-03-30T15:47:04Z</time></trkpt><trkpt lat="42.176343425326124" lon="-1.183696012558513"><ele>375.6</ele><time>2026-03-30T15:47:06Z</time></trkpt><trkpt lat="42.176437087368875" lon="-1.1836805214444448"><ele>375.8</ele><time>2026-03-30T15:47:08Z</time></trkpt><trkpt lat="42.176503425652356" lon="-1.1838004833606846"><ele>376.0</ele><time>2026-03-30T15:47:10Z</time></trkpt><trkpt lat="42.176525998282465" lon="-1.1838858719580052"><ele>376.6</ele><time>2026-03-30T15:47:11Z</time></trkpt><trkpt lat="42.17657466807905" lon="-1.1839645118087054"><ele>377.20000000000005</ele><time>2026-03-30T15:47:12Z</time></trkpt><trkpt lat="42.176621608313496" lon="-1.1841046768602606"><ele>377.79999999999995</ele><time>2026-03-30T15:47:14Z</time></trkpt><trkpt lat="42.176678148322736" lon="-1.1842236639649937"><ele>378.4</ele><time>2026-03-30T15:47:16Z</time></trkpt><trkpt lat="42.17671992474439" lon="-1.1843377333609564"><ele>379.0</ele><time>2026-03-30T15:47:18Z</time></trkpt><trkpt lat="42.176759519693185" lon="-1.1844428365585513"><ele>379.16666666666663</ele><time>2026-03-30T15:47:20Z</time></trkpt><trkpt lat="42.176797758174175" lon="-1.1845368060674637"><ele>379.3333333333333</ele><time>2026-03-30T15:47:22Z</time></trkpt><trkpt lat="42.176861986512925" lon="-1.1846202059710509"><ele>379.5</ele><time>2026-03-30T15:47:25Z</time></trkpt><trkpt lat="42.1768964255963" lon="-1.1846949991805267"><ele>379.6666666666667</ele><time>2026-03-30T15:47:29Z</time></trkpt><trkpt lat="42.17699785198702" lon="-1.1846481735255303"><ele>379.83333333333337</ele><time>2026-03-30T15:48:53Z</time></trkpt><trkpt lat="42.17701295518846" lon="-1.1845380685911526"><ele>380.0</ele><time>2026-03-30T15:48:55Z</time></trkpt><trkpt lat="42.176993905370566" lon="-1.1843922961571112"><ele>380.0</ele><time>2026-03-30T15:48:57Z</time></trkpt><trkpt lat="42.17699989875839" lon="-1.1842944298990772"><ele>380.0</ele><time>2026-03-30T15:48:58Z</time></trkpt><trkpt lat="42.17701213548386" lon="-1.184208011064173"><ele>380.0</ele><time>2026-03-30T15:49:00Z</time></trkpt><trkpt lat="42.17700884636174" lon="-1.1841148869849838"><ele>380.0</ele><time>2026-03-30T15:49:04Z</time></trkpt><trkpt lat="42.17687329183271" lon="-1.184067560048784"><ele>380.0</ele><time>2026-03-30T15:49:05Z</time></trkpt><trkpt lat="42.17681025773354" lon="-1.1839894270591744"><ele>380.0</ele><time>2026-03-30T15:49:08Z</time></trkpt><trkpt lat="42.176770019767076" lon="-1.1838962243092395"><ele>379.83333333333337</ele><time>2026-03-30T15:49:11Z</time></trkpt><trkpt lat="42.17673478218998" lon="-1.183770570497046"><ele>379.6666666666667</ele><time>2026-03-30T15:49:14Z</time></trkpt><trkpt lat="42.176711547284654" lon="-1.1836847328849032"><ele>379.5</ele><time>2026-03-30T15:49:16Z</time></trkpt><trkpt lat="42.17674265592831" lon="-1.1835522953059672"><ele>379.3333333333333</ele><time>2026-03-30T15:51:55Z</time></trkpt><trkpt lat="42.17679934992587" lon="-1.1835097909872012"><ele>379.16666666666663</ele><time>2026-03-30T15:52:04Z</time></trkpt><trkpt lat="42.176873943387456" lon="-1.183604600635301"><ele>379.0</ele><time>2026-03-30T16:04:12Z</time></trkpt><trkpt lat="42.17682606540079" lon="-1.1835434989910043"><ele>379.0</ele><time>2026-03-30T16:18:01Z</time></trkpt><trkpt lat="42.17676310879802" lon="-1.1835633239599155"><ele>379.0</ele><time>2026-03-30T16:18:14Z</time></trkpt><trkpt lat="42.176725181744814" lon="-1.1836341062109836"><ele>379.0</ele><time>2026-03-30T16:18:21Z</time></trkpt><trkpt lat="42.17676390996458" lon="-1.183712276275994"><ele>379.0</ele><time>2026-03-30T16:21:48Z</time></trkpt><trkpt lat="42.1767883649354" lon="-1.1838246210187748"><ele>379.0</ele><time>2026-03-30T16:21:51Z</time></trkpt><trkpt lat="42.176821625676595" lon="-1.1839130973739032"><ele>379.0</ele><time>2026-03-30T16:21:53Z</time></trkpt><trkpt lat="42.176859619377844" lon="-1.1840725568965138"><ele>379.0</ele><time>2026-03-30T16:21:55Z</time></trkpt><trkpt lat="42.17692696047216" lon="-1.184158992135197"><ele>379.0</ele><time>2026-03-30T16:21:57Z</time></trkpt><trkpt lat="42.17700620870443" lon="-1.1841550969395553"><ele>379.0</ele><time>2026-03-30T16:22:00Z</time></trkpt><trkpt lat="42.17702098042079" lon="-1.1840712114278449"><ele>379.0</ele><time>2026-03-30T16:22:02Z</time></trkpt><trkpt lat="42.17707073392968" lon="-1.1839700197289227"><ele>379.0</ele><time>2026-03-30T16:22:05Z</time></trkpt><trkpt lat="42.17708309462004" lon="-1.1838853326620338"><ele>379.0</ele><time>2026-03-30T16:22:06Z</time></trkpt><trkpt lat="42.17711190739037" lon="-1.1837866363429046"><ele>379.00000000000006</ele><time>2026-03-30T16:22:07Z</time></trkpt><trkpt lat="42.177146310783385" lon="-1.1837134449688986"><ele>379.0</ele><time>2026-03-30T16:22:08Z</time></trkpt><trkpt lat="42.17719924075205" lon="-1.1836589882314312"><ele>379.0</ele><time>2026-03-30T16:22:09Z</time></trkpt><trkpt lat="42.17719889761438" lon="-1.1835677227045984"><ele>379.0</ele><time>2026-03-30T16:22:10Z</time></trkpt><trkpt lat="42.1771719275064" lon="-1.1834635075971875"><ele>379.0</ele><time>2026-03-30T16:22:12Z</time></trkpt><trkpt lat="42.17724565771119" lon="-1.1834581939703928"><ele>379.00000000000006</ele><time>2026-03-30T16:22:15Z</time></trkpt><trkpt lat="42.177310049734764" lon="-1.1835242265614179"><ele>379.0</ele><time>2026-03-30T16:22:17Z</time></trkpt><trkpt lat="42.17737916497929" lon="-1.1835813905979748"><ele>379.0</ele><time>2026-03-30T16:22:20Z</time></trkpt><trkpt lat="42.17738939368816" lon="-1.1836669543640823"><ele>379.0</ele><time>2026-03-30T16:22:23Z</time></trkpt><trkpt lat="42.177309622840966" lon="-1.1837350136671076"><ele>379.0</ele><time>2026-03-30T16:22:25Z</time></trkpt><trkpt lat="42.17722838309912" lon="-1.183761635628644"><ele>379.0</ele><time>2026-03-30T16:22:26Z</time></trkpt><trkpt lat="42.17719458744711" lon="-1.1836520779729638"><ele>379.0</ele><time>2026-03-30T16:22:27Z</time></trkpt><trkpt lat="42.177148767134675" lon="-1.1835474367610583"><ele>379.0</ele><time>2026-03-30T16:22:29Z</time></trkpt><trkpt lat="42.177163360107805" lon="-1.1834477942560266"><ele>379.0</ele><time>2026-03-30T16:22:32Z</time></trkpt><trkpt lat="42.17723255423379" lon="-1.1834799913140925"><ele>379.0</ele><time>2026-03-30T16:22:34Z</time></trkpt><trkpt lat="42.17729515235748" lon="-1.1835333353974213"><ele>379.0</ele><time>2026-03-30T16:22:51Z</time></trkpt><trkpt lat="42.1773534094617" lon="-1.183596284466958"><ele>379.0</ele><time>2026-03-30T16:22:54Z</time></trkpt><trkpt lat="42.17738234117451" lon="-1.1836891669097866"><ele>379.0</ele><time>2026-03-30T16:22:57Z</time></trkpt><trkpt lat="42.1773040339543" lon="-1.1838313432774248"><ele>379.0</ele><time>2026-03-30T16:22:59Z</time></trkpt><trkpt lat="42.17735808781812" lon="-1.1839099151718475"><ele>378.8333333333333</ele><time>2026-03-30T16:23:00Z</time></trkpt><trkpt lat="42.17738131150518" lon="-1.1839971700590692"><ele>378.66666666666663</ele><time>2026-03-30T16:23:01Z</time></trkpt><trkpt lat="42.17747873244302" lon="-1.1840621259693935"><ele>378.5</ele><time>2026-03-30T16:23:03Z</time></trkpt><trkpt lat="42.177540609364705" lon="-1.184082286748382"><ele>378.3333333333333</ele><time>2026-03-30T16:23:04Z</time></trkpt><trkpt lat="42.17761490517835" lon="-1.1841219390787936"><ele>378.1666666666667</ele><time>2026-03-30T16:23:05Z</time></trkpt><trkpt lat="42.177695686931166" lon="-1.1841812136525605"><ele>378.0</ele><time>2026-03-30T16:23:06Z</time></trkpt><trkpt lat="42.177770679391394" lon="-1.1842612960717018"><ele>378.5</ele><time>2026-03-30T16:23:07Z</time></trkpt><trkpt lat="42.177844642819416" lon="-1.1843414777157593"><ele>379.0</ele><time>2026-03-30T16:23:08Z</time></trkpt><trkpt lat="42.177907101007754" lon="-1.1844090203584268"><ele>379.5</ele><time>2026-03-30T16:23:09Z</time></trkpt><trkpt lat="42.177963134657396" lon="-1.1844705815643735"><ele>380.0</ele><time>2026-03-30T16:23:10Z</time></trkpt><trkpt lat="42.178009849096725" lon="-1.1845334745931828"><ele>380.5</ele><time>2026-03-30T16:23:11Z</time></trkpt><trkpt lat="42.17808880581472" lon="-1.1845417354144312"><ele>381.0</ele><time>2026-03-30T16:23:12Z</time></trkpt><trkpt lat="42.17816221682049" lon="-1.1845503617470081"><ele>380.0</ele><time>2026-03-30T16:23:13Z</time></trkpt><trkpt lat="42.17824061607323" lon="-1.184522606411126"><ele>379.0</ele><time>2026-03-30T16:23:14Z</time></trkpt><trkpt lat="42.1783145551976" lon="-1.1845483978607554"><ele>378.0</ele><time>2026-03-30T16:23:15Z</time></trkpt><trkpt lat="42.17840060645586" lon="-1.1844292394223377"><ele>377.0</ele><time>2026-03-30T16:23:16Z</time></trkpt><trkpt lat="42.178481004333115" lon="-1.1843799994924133"><ele>376.0</ele><time>2026-03-30T16:23:17Z</time></trkpt><trkpt lat="42.17857254122629" lon="-1.1843885626344965"><ele>376.0</ele><time>2026-03-30T16:23:18Z</time></trkpt><trkpt lat="42.17867337566251" lon="-1.1844094984291909"><ele>376.0</ele><time>2026-03-30T16:23:19Z</time></trkpt><trkpt lat="42.17876265633847" lon="-1.1844422536938746"><ele>376.0</ele><time>2026-03-30T16:23:20Z</time></trkpt><trkpt lat="42.17884205532765" lon="-1.184481524606614"><ele>376.0</ele><time>2026-03-30T16:23:21Z</time></trkpt><trkpt lat="42.178915899439865" lon="-1.1845227556371758"><ele>376.0</ele><time>2026-03-30T16:23:22Z</time></trkpt><trkpt lat="42.17899304470862" lon="-1.1845753668581187"><ele>376.0</ele><time>2026-03-30T16:23:23Z</time></trkpt><trkpt lat="42.17906937683117" lon="-1.1846383242875254"><ele>376.4</ele><time>2026-03-30T16:23:24Z</time></trkpt><trkpt lat="42.17914455206408" lon="-1.1847123314401542"><ele>376.8</ele><time>2026-03-30T16:23:25Z</time></trkpt><trkpt lat="42.179209669495265" lon="-1.1848046398492482"><ele>377.2</ele><time>2026-03-30T16:23:26Z</time></trkpt><trkpt lat="42.17927508888783" lon="-1.1848860016387368"><ele>377.59999999999997</ele><time>2026-03-30T16:23:27Z</time></trkpt><trkpt lat="42.17928808328182" lon="-1.1850083545507615"><ele>378.0</ele><time>2026-03-30T16:23:28Z</time></trkpt><trkpt lat="42.17928302708047" lon="-1.185119253402452"><ele>378.0</ele><time>2026-03-30T16:23:29Z</time></trkpt><trkpt lat="42.17928118620321" lon="-1.185227945397959"><ele>378.0</ele><time>2026-03-30T16:23:30Z</time></trkpt><trkpt lat="42.17924185839883" lon="-1.1853481962973451"><ele>378.0</ele><time>2026-03-30T16:23:31Z</time></trkpt><trkpt lat="42.17919163759113" lon="-1.185457005560159"><ele>378.0</ele><time>2026-03-30T16:23:32Z</time></trkpt><trkpt lat="42.179131331980415" lon="-1.1855525468587587"><ele>378.0</ele><time>2026-03-30T16:23:33Z</time></trkpt><trkpt lat="42.179049865653155" lon="-1.185623031013106"><ele>378.79999999999995</ele><time>2026-03-30T16:23:34Z</time></trkpt><trkpt lat="42.178958043952136" lon="-1.1856713716675558"><ele>379.6</ele><time>2026-03-30T16:23:35Z</time></trkpt><trkpt lat="42.178870734862414" lon="-1.1857019705381067"><ele>380.4</ele><time>2026-03-30T16:23:36Z</time></trkpt><trkpt lat="42.17877875954533" lon="-1.1857541879189537"><ele>381.20000000000005</ele><time>2026-03-30T16:23:37Z</time></trkpt><trkpt lat="42.17869536990438" lon="-1.1858251324653515"><ele>382.0</ele><time>2026-03-30T16:23:38Z</time></trkpt><trkpt lat="42.17862156061913" lon="-1.1859103984841202"><ele>382.20000000000005</ele><time>2026-03-30T16:23:39Z</time></trkpt><trkpt lat="42.1785520647447" lon="-1.186008087985392"><ele>382.4</ele><time>2026-03-30T16:23:40Z</time></trkpt><trkpt lat="42.17848493594486" lon="-1.1861102807884722"><ele>382.6</ele><time>2026-03-30T16:23:41Z</time></trkpt><trkpt lat="42.17841306020751" lon="-1.186215522796796"><ele>382.79999999999995</ele><time>2026-03-30T16:23:42Z</time></trkpt><trkpt lat="42.178337179303135" lon="-1.1863257189092953"><ele>383.0</ele><time>2026-03-30T16:23:43Z</time></trkpt><trkpt lat="42.17827259969291" lon="-1.1864147390554283"><ele>383.0</ele><time>2026-03-30T16:23:44Z</time></trkpt><trkpt lat="42.17821175231466" lon="-1.1864928282187257"><ele>383.0</ele><time>2026-03-30T16:23:45Z</time></trkpt><trkpt lat="42.178180257792654" lon="-1.186637986405105"><ele>383.0</ele><time>2026-03-30T16:23:47Z</time></trkpt><trkpt lat="42.17816427351291" lon="-1.1867378932330561"><ele>383.0</ele><time>2026-03-30T16:23:52Z</time></trkpt><trkpt lat="42.178006704019026" lon="-1.1867885243360867"><ele>383.0</ele><time>2026-03-30T16:23:54Z</time></trkpt><trkpt lat="42.17792693889353" lon="-1.1867929423753294"><ele>381.83333333333337</ele><time>2026-03-30T16:23:57Z</time></trkpt><trkpt lat="42.1778622431235" lon="-1.1867961256186148"><ele>380.6666666666667</ele><time>2026-03-30T16:24:00Z</time></trkpt><trkpt lat="42.17779307357303" lon="-1.186798728480766"><ele>379.5</ele><time>2026-03-30T16:25:26Z</time></trkpt><trkpt lat="42.1777250989853" lon="-1.1868012863805162"><ele>378.3333333333333</ele><time>2026-03-30T16:25:27Z</time></trkpt><trkpt lat="42.1776343390195" lon="-1.1868047017002743"><ele>377.16666666666663</ele><time>2026-03-30T16:25:28Z</time></trkpt><trkpt lat="42.17750447324764" lon="-1.186809588578411"><ele>376.0</ele><time>2026-03-30T16:25:29Z</time></trkpt><trkpt lat="42.177357875200485" lon="-1.1868151050981457"><ele>375.66666666666663</ele><time>2026-03-30T16:25:30Z</time></trkpt><trkpt lat="42.17721311715913" lon="-1.1868059816816499"><ele>375.3333333333333</ele><time>2026-03-30T16:25:31Z</time></trkpt><trkpt lat="42.177013571574335" lon="-1.1868389560939328"><ele>375.0</ele><time>2026-03-30T16:25:32Z</time></trkpt><trkpt lat="42.17679105021975" lon="-1.1868750578775153"><ele>375.0</ele><time>2026-03-30T16:25:33Z</time></trkpt><trkpt lat="42.176553412856535" lon="-1.186925356713158"><ele>375.0</ele><time>2026-03-30T16:25:34Z</time></trkpt><trkpt lat="42.17630190794749" lon="-1.1870028296875996"><ele>373.5</ele><time>2026-03-30T16:25:35Z</time></trkpt><trkpt lat="42.17606340284693" lon="-1.1870833147092248"><ele>372.0</ele><time>2026-03-30T16:25:36Z</time></trkpt><trkpt lat="42.17584186525209" lon="-1.1871601389629116"><ele>372.0</ele><time>2026-03-30T16:25:37Z</time></trkpt><trkpt lat="42.17563772233072" lon="-1.187235768060824"><ele>372.0</ele><time>2026-03-30T16:25:38Z</time></trkpt><trkpt lat="42.17546018475289" lon="-1.1873026283793784"><ele>372.0</ele><time>2026-03-30T16:25:39Z</time></trkpt><trkpt lat="42.17529869366005" lon="-1.1873672916400717"><ele>372.25</ele><time>2026-03-30T16:25:40Z</time></trkpt><trkpt lat="42.175152857988735" lon="-1.1874195806098724"><ele>372.5</ele><time>2026-03-30T16:25:41Z</time></trkpt><trkpt lat="42.17502978606079" lon="-1.1875131055159718"><ele>372.75</ele><time>2026-03-30T16:25:42Z</time></trkpt><trkpt lat="42.17494338014001" lon="-1.1876451774973111"><ele>373.0</ele><time>2026-03-30T16:25:43Z</time></trkpt><trkpt lat="42.17485733034269" lon="-1.1877293139612053"><ele>373.0</ele><time>2026-03-30T16:25:44Z</time></trkpt><trkpt lat="42.17480666784137" lon="-1.1878331772295545"><ele>373.0</ele><time>2026-03-30T16:25:45Z</time></trkpt><trkpt lat="42.1747462240403" lon="-1.187917142972204"><ele>373.0</ele><time>2026-03-30T16:25:47Z</time></trkpt><trkpt lat="42.17468319838051" lon="-1.1879631881279469"><ele>373.0</ele><time>2026-03-30T16:25:51Z</time></trkpt><trkpt lat="42.174531755843255" lon="-1.1878443133791647"><ele>373.0</ele><time>2026-03-30T16:25:52Z</time></trkpt><trkpt lat="42.1744279653342" lon="-1.1877542374339152"><ele>373.0</ele><time>2026-03-30T16:25:53Z</time></trkpt><trkpt lat="42.174319198488455" lon="-1.1876336691186573"><ele>373.0</ele><time>2026-03-30T16:25:54Z</time></trkpt><trkpt lat="42.174146537392794" lon="-1.1874864310349287"><ele>373.0</ele><time>2026-03-30T16:25:55Z</time></trkpt><trkpt lat="42.173956595866954" lon="-1.1873254758424776"><ele>373.3333333333333</ele><time>2026-03-30T16:25:56Z</time></trkpt><trkpt lat="42.17377871636213" lon="-1.1871696353298247"><ele>373.6666666666667</ele><time>2026-03-30T16:25:57Z</time></trkpt><trkpt lat="42.17359890384045" lon="-1.187010972346566"><ele>374.0</ele><time>2026-03-30T16:25:58Z</time></trkpt><trkpt lat="42.1734165220653" lon="-1.1868530097144"><ele>374.0</ele><time>2026-03-30T16:25:59Z</time></trkpt><trkpt lat="42.17322886774015" lon="-1.1866961764043635"><ele>374.0</ele><time>2026-03-30T16:26:00Z</time></trkpt><trkpt lat="42.17304187308601" lon="-1.1865328228583933"><ele>374.0</ele><time>2026-03-30T16:26:01Z</time></trkpt><trkpt lat="42.17285154636909" lon="-1.1863644608864032"><ele>373.5</ele><time>2026-03-30T16:26:02Z</time></trkpt><trkpt lat="42.17265232881677" lon="-1.186219151520678"><ele>373.0</ele><time>2026-03-30T16:26:03Z</time></trkpt><trkpt lat="42.172462529766804" lon="-1.1860556584525854"><ele>371.0</ele><time>2026-03-30T16:26:04Z</time></trkpt><trkpt lat="42.172270318397686" lon="-1.1858891075615523"><ele>369.0</ele><time>2026-03-30T16:26:05Z</time></trkpt><trkpt lat="42.172077823649055" lon="-1.1857211006109196"><ele>368.5</ele><time>2026-03-30T16:26:06Z</time></trkpt><trkpt lat="42.17189240394478" lon="-1.1855352093293434"><ele>368.0</ele><time>2026-03-30T16:26:07Z</time></trkpt><trkpt lat="42.17169586807043" lon="-1.18536919155863"><ele>368.5</ele><time>2026-03-30T16:26:08Z</time></trkpt><trkpt lat="42.17150619712432" lon="-1.1852051768780087"><ele>369.0</ele><time>2026-03-30T16:26:09Z</time></trkpt><trkpt lat="42.17131291352669" lon="-1.1850362428819126"><ele>369.0</ele><time>2026-03-30T16:26:10Z</time></trkpt><trkpt lat="42.17112141654054" lon="-1.1848671698493647"><ele>369.0</ele><time>2026-03-30T16:26:11Z</time></trkpt><trkpt lat="42.170923360683375" lon="-1.1846997942034774"><ele>369.0</ele><time>2026-03-30T16:26:12Z</time></trkpt><trkpt lat="42.170723898471" lon="-1.184530304132949"><ele>369.0</ele><time>2026-03-30T16:26:13Z</time></trkpt><trkpt lat="42.17052861355093" lon="-1.1843572194847714"><ele>368.5</ele><time>2026-03-30T16:26:14Z</time></trkpt><trkpt lat="42.17033326937518" lon="-1.1841855189826322"><ele>368.0</ele><time>2026-03-30T16:26:15Z</time></trkpt><trkpt lat="42.17013876280772" lon="-1.1840169225868744"><ele>368.0</ele><time>2026-03-30T16:26:16Z</time></trkpt><trkpt lat="42.169942881088936" lon="-1.1838491124060913"><ele>368.0</ele><time>2026-03-30T16:26:17Z</time></trkpt><trkpt lat="42.16974469651072" lon="-1.1836781474667233"><ele>367.5</ele><time>2026-03-30T16:26:18Z</time></trkpt><trkpt lat="42.16954771638587" lon="-1.1835052034744828"><ele>367.0</ele><time>2026-03-30T16:26:19Z</time></trkpt><trkpt lat="42.16935238805709" lon="-1.183338096867714"><ele>366.5</ele><time>2026-03-30T16:26:20Z</time></trkpt><trkpt lat="42.16916003707679" lon="-1.183169116932023"><ele>366.0</ele><time>2026-03-30T16:26:21Z</time></trkpt><trkpt lat="42.16896971472117" lon="-1.183002108250194"><ele>365.0</ele><time>2026-03-30T16:26:22Z</time></trkpt><trkpt lat="42.168777313213496" lon="-1.182833902802167"><ele>364.0</ele><time>2026-03-30T16:26:23Z</time></trkpt><trkpt lat="42.16858122525913" lon="-1.1826679447705977"><ele>364.0</ele><time>2026-03-30T16:26:24Z</time></trkpt><trkpt lat="42.168388415937265" lon="-1.182502659646366"><ele>364.0</ele><time>2026-03-30T16:26:25Z</time></trkpt><trkpt lat="42.16819673039224" lon="-1.1823349750603205"><ele>365.0</ele><time>2026-03-30T16:26:26Z</time></trkpt><trkpt lat="42.168003642933456" lon="-1.1821642381067543"><ele>366.0</ele><time>2026-03-30T16:26:27Z</time></trkpt><trkpt lat="42.16779835192728" lon="-1.1819867504035038"><ele>366.0</ele><time>2026-03-30T16:26:28Z</time></trkpt><trkpt lat="42.16760063225343" lon="-1.181818397689889"><ele>366.0</ele><time>2026-03-30T16:26:29Z</time></trkpt><trkpt lat="42.167401284850776" lon="-1.1816420878003204"><ele>365.0</ele><time>2026-03-30T16:26:30Z</time></trkpt><trkpt lat="42.167202297839175" lon="-1.1814663989665426"><ele>364.0</ele><time>2026-03-30T16:26:31Z</time></trkpt><trkpt lat="42.16700429656963" lon="-1.1812952462831388"><ele>364.0</ele><time>2026-03-30T16:26:32Z</time></trkpt><trkpt lat="42.166798149797344" lon="-1.181117113143703"><ele>364.0</ele><time>2026-03-30T16:26:33Z</time></trkpt><trkpt lat="42.16658013640353" lon="-1.1809535019787414"><ele>364.0</ele><time>2026-03-30T16:26:34Z</time></trkpt><trkpt lat="42.166372742576414" lon="-1.1807740145244907"><ele>364.0</ele><time>2026-03-30T16:26:35Z</time></trkpt><trkpt lat="42.16617971251446" lon="-1.180581605639681"><ele>364.0</ele><time>2026-03-30T16:26:36Z</time></trkpt><trkpt lat="42.16598031424685" lon="-1.180409668642691"><ele>364.0</ele><time>2026-03-30T16:26:37Z</time></trkpt><trkpt lat="42.165773036808666" lon="-1.1802547581288327"><ele>363.0</ele><time>2026-03-30T16:26:38Z</time></trkpt><trkpt lat="42.16556497366588" lon="-1.1800492625730883"><ele>362.0</ele><time>2026-03-30T16:26:39Z</time></trkpt><trkpt lat="42.16536079322817" lon="-1.179874865773943"><ele>362.5</ele><time>2026-03-30T16:26:40Z</time></trkpt><trkpt lat="42.16515549995903" lon="-1.1796978886713794"><ele>363.0</ele><time>2026-03-30T16:26:41Z</time></trkpt><trkpt lat="42.164950207002164" lon="-1.1795190232604442"><ele>362.5</ele><time>2026-03-30T16:26:42Z</time></trkpt><trkpt lat="42.1647448224074" lon="-1.1793386596662898"><ele>362.0</ele><time>2026-03-30T16:26:43Z</time></trkpt><trkpt lat="42.1645384064572" lon="-1.179158798009747"><ele>360.5</ele><time>2026-03-30T16:26:44Z</time></trkpt><trkpt lat="42.16433182985568" lon="-1.1789823822139849"><ele>359.0</ele><time>2026-03-30T16:26:45Z</time></trkpt><trkpt lat="42.16412755648411" lon="-1.178802332446157"><ele>359.0</ele><time>2026-03-30T16:26:46Z</time></trkpt><trkpt lat="42.163915839863655" lon="-1.1786192239091355"><ele>359.0</ele><time>2026-03-30T16:26:47Z</time></trkpt><trkpt lat="42.16370532248312" lon="-1.178436447126112"><ele>359.0</ele><time>2026-03-30T16:26:48Z</time></trkpt><trkpt lat="42.1634924682086" lon="-1.1782555406941138"><ele>359.0</ele><time>2026-03-30T16:26:49Z</time></trkpt><trkpt lat="42.16327775224366" lon="-1.1780740198899051"><ele>359.0</ele><time>2026-03-30T16:26:50Z</time></trkpt><trkpt lat="42.163055412713504" lon="-1.1778782974832136"><ele>359.0</ele><time>2026-03-30T16:26:51Z</time></trkpt><trkpt lat="42.16283912078745" lon="-1.1776867676324534"><ele>359.0</ele><time>2026-03-30T16:26:52Z</time></trkpt><trkpt lat="42.162620124098964" lon="-1.177497784198715"><ele>359.0</ele><time>2026-03-30T16:26:53Z</time></trkpt><trkpt lat="42.16240188395898" lon="-1.177309038145285"><ele>358.0</ele><time>2026-03-30T16:26:54Z</time></trkpt><trkpt lat="42.16217474741196" lon="-1.177139197920239"><ele>357.0</ele><time>2026-03-30T16:26:55Z</time></trkpt><trkpt lat="42.16195556078196" lon="-1.176949973505678"><ele>357.0</ele><time>2026-03-30T16:26:56Z</time></trkpt><trkpt lat="42.16173804139733" lon="-1.176761305742684"><ele>357.0</ele><time>2026-03-30T16:26:57Z</time></trkpt><trkpt lat="42.16152123452119" lon="-1.1765735454298822"><ele>356.5</ele><time>2026-03-30T16:26:58Z</time></trkpt><trkpt lat="42.161310152091225" lon="-1.1763691358403905"><ele>356.0</ele><time>2026-03-30T16:26:59Z</time></trkpt><trkpt lat="42.16109225502554" lon="-1.176187354191406"><ele>356.0</ele><time>2026-03-30T16:27:00Z</time></trkpt><trkpt lat="42.160870239763895" lon="-1.1759987406139334"><ele>356.0</ele><time>2026-03-30T16:27:01Z</time></trkpt><trkpt lat="42.1606646166783" lon="-1.175807592332305"><ele>355.5</ele><time>2026-03-30T16:27:02Z</time></trkpt><trkpt lat="42.160444650400464" lon="-1.1756173263660548"><ele>355.0</ele><time>2026-03-30T16:27:03Z</time></trkpt><trkpt lat="42.16022288696926" lon="-1.1754276061575655"><ele>355.0</ele><time>2026-03-30T16:27:04Z</time></trkpt><trkpt lat="42.16000067017344" lon="-1.1752422541886218"><ele>355.0</ele><time>2026-03-30T16:27:05Z</time></trkpt><trkpt lat="42.1597778196244" lon="-1.1750505408405616"><ele>354.5</ele><time>2026-03-30T16:27:06Z</time></trkpt><trkpt lat="42.15955691430016" lon="-1.1748523418449668"><ele>354.0</ele><time>2026-03-30T16:27:07Z</time></trkpt><trkpt lat="42.159328197154295" lon="-1.1746529883871197"><ele>354.0</ele><time>2026-03-30T16:27:08Z</time></trkpt><trkpt lat="42.15909880316118" lon="-1.1744544605702876"><ele>354.0</ele><time>2026-03-30T16:27:09Z</time></trkpt><trkpt lat="42.158869534936336" lon="-1.1742568221722878"><ele>353.5</ele><time>2026-03-30T16:27:10Z</time></trkpt><trkpt lat="42.1586419505029" lon="-1.1740589769548975"><ele>353.0</ele><time>2026-03-30T16:27:11Z</time></trkpt><trkpt lat="42.15841044877715" lon="-1.173861737792112"><ele>352.5</ele><time>2026-03-30T16:27:12Z</time></trkpt><trkpt lat="42.15817844124195" lon="-1.1736612514329334"><ele>352.0</ele><time>2026-03-30T16:27:13Z</time></trkpt><trkpt lat="42.15794497141171" lon="-1.1734562639447605"><ele>352.0</ele><time>2026-03-30T16:27:14Z</time></trkpt><trkpt lat="42.157703306481345" lon="-1.173272083308782"><ele>352.0</ele><time>2026-03-30T16:27:15Z</time></trkpt><trkpt lat="42.157478285012935" lon="-1.1730549051827557"><ele>352.0</ele><time>2026-03-30T16:27:16Z</time></trkpt><trkpt lat="42.15723846185474" lon="-1.1728520740324342"><ele>352.0</ele><time>2026-03-30T16:27:17Z</time></trkpt><trkpt lat="42.15700052619381" lon="-1.1726482305466914"><ele>352.0</ele><time>2026-03-30T16:27:18Z</time></trkpt><trkpt lat="42.156762113387636" lon="-1.1724420535613014"><ele>352.0</ele><time>2026-03-30T16:27:19Z</time></trkpt><trkpt lat="42.15652447584524" lon="-1.1722357871187834"><ele>351.5</ele><time>2026-03-30T16:27:20Z</time></trkpt><trkpt lat="42.1562849259668" lon="-1.1720301397854171"><ele>351.0</ele><time>2026-03-30T16:27:21Z</time></trkpt><trkpt lat="42.15604415899081" lon="-1.17182421823218"><ele>351.0</ele><time>2026-03-30T16:27:22Z</time></trkpt><trkpt lat="42.15580599088828" lon="-1.171614068502219"><ele>351.0</ele><time>2026-03-30T16:27:23Z</time></trkpt><trkpt lat="42.15556597400725" lon="-1.171404161414648"><ele>350.0</ele><time>2026-03-30T16:27:24Z</time></trkpt><trkpt lat="42.15532586000958" lon="-1.1711991997164162"><ele>349.0</ele><time>2026-03-30T16:27:25Z</time></trkpt><trkpt lat="42.15508435249565" lon="-1.170992944177881"><ele>349.0</ele><time>2026-03-30T16:27:26Z</time></trkpt><trkpt lat="42.15484319901945" lon="-1.1707865769551955"><ele>349.0</ele><time>2026-03-30T16:27:27Z</time></trkpt><trkpt lat="42.15460443441177" lon="-1.1705821604651532"><ele>349.5</ele><time>2026-03-30T16:27:28Z</time></trkpt><trkpt lat="42.154366009822596" lon="-1.1703761821482976"><ele>350.0</ele><time>2026-03-30T16:27:29Z</time></trkpt><trkpt lat="42.154130083885974" lon="-1.1701726026065369"><ele>348.5</ele><time>2026-03-30T16:27:30Z</time></trkpt><trkpt lat="42.153900010446854" lon="-1.1699719278322742"><ele>347.0</ele><time>2026-03-30T16:27:31Z</time></trkpt><trkpt lat="42.15365588169721" lon="-1.1697608116154405"><ele>347.0</ele><time>2026-03-30T16:27:32Z</time></trkpt><trkpt lat="42.15342175099404" lon="-1.169560413062592"><ele>347.0</ele><time>2026-03-30T16:27:33Z</time></trkpt><trkpt lat="42.15318561778052" lon="-1.1693580604099674"><ele>346.0</ele><time>2026-03-30T16:27:34Z</time></trkpt><trkpt lat="42.152953576621904" lon="-1.1691563074856555"><ele>345.0</ele><time>2026-03-30T16:27:35Z</time></trkpt><trkpt lat="42.15272305303891" lon="-1.1689565826627977"><ele>345.0</ele><time>2026-03-30T16:27:36Z</time></trkpt><trkpt lat="42.15249654751359" lon="-1.1687589649958532"><ele>345.0</ele><time>2026-03-30T16:27:37Z</time></trkpt><trkpt lat="42.15227547506404" lon="-1.1685684914509653"><ele>345.5</ele><time>2026-03-30T16:27:38Z</time></trkpt><trkpt lat="42.15205505799198" lon="-1.1683799162665867"><ele>346.0</ele><time>2026-03-30T16:27:39Z</time></trkpt><trkpt lat="42.1517551007633" lon="-1.168115606330371"><ele>344.5</ele><time>2026-03-30T16:27:40Z</time></trkpt><trkpt lat="42.15152627638708" lon="-1.1679134527430903"><ele>343.0</ele><time>2026-03-30T16:27:41Z</time></trkpt><trkpt lat="42.15129325975055" lon="-1.1677121234086583"><ele>343.0</ele><time>2026-03-30T16:27:42Z</time></trkpt><trkpt lat="42.15106219136345" lon="-1.1675162219829947"><ele>343.0</ele><time>2026-03-30T16:27:43Z</time></trkpt><trkpt lat="42.150831514538105" lon="-1.1673190418495132"><ele>343.0</ele><time>2026-03-30T16:27:44Z</time></trkpt><trkpt lat="42.15060073945329" lon="-1.167114312721721"><ele>343.0</ele><time>2026-03-30T16:27:45Z</time></trkpt><trkpt lat="42.1503568002622" lon="-1.166927281623887"><ele>343.0</ele><time>2026-03-30T16:27:46Z</time></trkpt><trkpt lat="42.150123853758274" lon="-1.1667015851490765"><ele>343.0</ele><time>2026-03-30T16:27:47Z</time></trkpt><trkpt lat="42.14987833292199" lon="-1.1664925958370895"><ele>341.5</ele><time>2026-03-30T16:27:48Z</time></trkpt><trkpt lat="42.149631030427464" lon="-1.1662771095961095"><ele>340.0</ele><time>2026-03-30T16:27:49Z</time></trkpt><trkpt lat="42.1493717394648" lon="-1.1660798032938597"><ele>340.0</ele><time>2026-03-30T16:27:50Z</time></trkpt><trkpt lat="42.14912108164428" lon="-1.165863248995418"><ele>340.0</ele><time>2026-03-30T16:27:51Z</time></trkpt><trkpt lat="42.14887145867946" lon="-1.1656469533023095"><ele>340.0</ele><time>2026-03-30T16:27:52Z</time></trkpt><trkpt lat="42.14862416751063" lon="-1.1654324250241281"><ele>340.0</ele><time>2026-03-30T16:27:53Z</time></trkpt><trkpt lat="42.148386231306084" lon="-1.1652048213861574"><ele>340.5</ele><time>2026-03-30T16:27:54Z</time></trkpt><trkpt lat="42.148135337936296" lon="-1.164995692119444"><ele>341.0</ele><time>2026-03-30T16:27:55Z</time></trkpt><trkpt lat="42.14788758161913" lon="-1.1647815457243278"><ele>341.0</ele><time>2026-03-30T16:27:56Z</time></trkpt><trkpt lat="42.14764313743035" lon="-1.164565287068988"><ele>341.0</ele><time>2026-03-30T16:27:57Z</time></trkpt><trkpt lat="42.14739552101031" lon="-1.1643558444053752"><ele>339.5</ele><time>2026-03-30T16:27:58Z</time></trkpt><trkpt lat="42.14715077362089" lon="-1.1641442705430343"><ele>338.0</ele><time>2026-03-30T16:27:59Z</time></trkpt><trkpt lat="42.146907751734325" lon="-1.1639288641382184"><ele>338.0</ele><time>2026-03-30T16:28:00Z</time></trkpt><trkpt lat="42.146666034091965" lon="-1.1637225324261662"><ele>338.0</ele><time>2026-03-30T16:28:01Z</time></trkpt><trkpt lat="42.146431345226425" lon="-1.1635261086603295"><ele>338.0</ele><time>2026-03-30T16:28:02Z</time></trkpt><trkpt lat="42.146194508301804" lon="-1.1633227462809295"><ele>338.0</ele><time>2026-03-30T16:28:03Z</time></trkpt><trkpt lat="42.145959933784575" lon="-1.1631182436254552"><ele>338.0</ele><time>2026-03-30T16:28:04Z</time></trkpt><trkpt lat="42.145721151029214" lon="-1.1629107178268696"><ele>338.0</ele><time>2026-03-30T16:28:05Z</time></trkpt><trkpt lat="42.145479670087944" lon="-1.1627023205029088"><ele>338.0</ele><time>2026-03-30T16:28:06Z</time></trkpt><trkpt lat="42.145232503769954" lon="-1.162487923918466"><ele>338.0</ele><time>2026-03-30T16:28:07Z</time></trkpt><trkpt lat="42.144985291029364" lon="-1.162268997896687"><ele>336.5</ele><time>2026-03-30T16:28:08Z</time></trkpt><trkpt lat="42.14473785310787" lon="-1.162053398225087"><ele>335.0</ele><time>2026-03-30T16:28:09Z</time></trkpt><trkpt lat="42.14448978062023" lon="-1.1618447807870902"><ele>335.0</ele><time>2026-03-30T16:28:10Z</time></trkpt><trkpt lat="42.14424525138255" lon="-1.161633742269721"><ele>335.0</ele><time>2026-03-30T16:28:11Z</time></trkpt><trkpt lat="42.143998386170715" lon="-1.1614195573401993"><ele>336.0</ele><time>2026-03-30T16:28:12Z</time></trkpt><trkpt lat="42.14375007398743" lon="-1.1612033769205097"><ele>337.0</ele><time>2026-03-30T16:28:13Z</time></trkpt><trkpt lat="42.14350062849376" lon="-1.1609898758664994"><ele>337.0</ele><time>2026-03-30T16:28:14Z</time></trkpt><trkpt lat="42.14324829838454" lon="-1.1607749800739156"><ele>337.0</ele><time>2026-03-30T16:28:15Z</time></trkpt><trkpt lat="42.14299549124317" lon="-1.1605581318363822"><ele>336.0</ele><time>2026-03-30T16:28:16Z</time></trkpt><trkpt lat="42.142744376526984" lon="-1.160336032952527"><ele>335.0</ele><time>2026-03-30T16:28:17Z</time></trkpt><trkpt lat="42.1424935124488" lon="-1.1601150340608053"><ele>334.5</ele><time>2026-03-30T16:28:18Z</time></trkpt><trkpt lat="42.14224325173605" lon="-1.1598996323869335"><ele>334.0</ele><time>2026-03-30T16:28:19Z</time></trkpt><trkpt lat="42.1419933791279" lon="-1.1596872111706813"><ele>333.5</ele><time>2026-03-30T16:28:20Z</time></trkpt><trkpt lat="42.14174671688948" lon="-1.1594764102179718"><ele>333.0</ele><time>2026-03-30T16:28:21Z</time></trkpt><trkpt lat="42.141497554635365" lon="-1.1592628365543731"><ele>333.0</ele><time>2026-03-30T16:28:22Z</time></trkpt><trkpt lat="42.14124907852287" lon="-1.159048232640859"><ele>333.0</ele><time>2026-03-30T16:28:23Z</time></trkpt><trkpt lat="42.14100276289244" lon="-1.1588342389575004"><ele>333.5</ele><time>2026-03-30T16:28:24Z</time></trkpt><trkpt lat="42.1407527786416" lon="-1.1586183159936778"><ele>334.0</ele><time>2026-03-30T16:28:25Z</time></trkpt><trkpt lat="42.14050597308744" lon="-1.1584031176209677"><ele>333.0</ele><time>2026-03-30T16:28:26Z</time></trkpt><trkpt lat="42.1402619568601" lon="-1.1581907368356243"><ele>332.0</ele><time>2026-03-30T16:28:27Z</time></trkpt><trkpt lat="42.140014995665965" lon="-1.1579801501751816"><ele>332.5</ele><time>2026-03-30T16:28:28Z</time></trkpt><trkpt lat="42.1397729553567" lon="-1.1577718251842346"><ele>333.0</ele><time>2026-03-30T16:28:29Z</time></trkpt><trkpt lat="42.139535466678794" lon="-1.1575652084069017"><ele>332.5</ele><time>2026-03-30T16:28:30Z</time></trkpt><trkpt lat="42.13929851995521" lon="-1.157360942565661"><ele>332.0</ele><time>2026-03-30T16:28:31Z</time></trkpt><trkpt lat="42.139081691702295" lon="-1.157173064650108"><ele>332.5</ele><time>2026-03-30T16:28:32Z</time></trkpt><trkpt lat="42.138877542640195" lon="-1.156996398829684"><ele>333.0</ele><time>2026-03-30T16:28:33Z</time></trkpt><trkpt lat="42.138674766584806" lon="-1.1568194027425545"><ele>333.0</ele><time>2026-03-30T16:28:34Z</time></trkpt><trkpt lat="42.138475525128975" lon="-1.15667068088636"><ele>333.0</ele><time>2026-03-30T16:28:35Z</time></trkpt><trkpt lat="42.13828942132092" lon="-1.1564837276257254"><ele>331.5</ele><time>2026-03-30T16:28:36Z</time></trkpt><trkpt lat="42.13807510916689" lon="-1.1563017501944648"><ele>330.0</ele><time>2026-03-30T16:28:37Z</time></trkpt><trkpt lat="42.137852263325826" lon="-1.1561082919280563"><ele>330.0</ele><time>2026-03-30T16:28:38Z</time></trkpt><trkpt lat="42.13763078480925" lon="-1.155920241777068"><ele>330.0</ele><time>2026-03-30T16:28:39Z</time></trkpt><trkpt lat="42.13740829864425" lon="-1.155732186246487"><ele>328.0</ele><time>2026-03-30T16:28:40Z</time></trkpt><trkpt lat="42.137182331032605" lon="-1.1555367999227018"><ele>326.0</ele><time>2026-03-30T16:28:41Z</time></trkpt><trkpt lat="42.13695538977269" lon="-1.1553368019905808"><ele>326.0</ele><time>2026-03-30T16:28:42Z</time></trkpt><trkpt lat="42.13672559305878" lon="-1.155136468904967"><ele>326.0</ele><time>2026-03-30T16:28:43Z</time></trkpt><trkpt lat="42.136490884717254" lon="-1.1549328146988813"><ele>326.0</ele><time>2026-03-30T16:28:44Z</time></trkpt><trkpt lat="42.13624942050044" lon="-1.1547288661692128"><ele>326.0</ele><time>2026-03-30T16:28:45Z</time></trkpt><trkpt lat="42.13600991250113" lon="-1.1545298893008622"><ele>326.0</ele><time>2026-03-30T16:28:46Z</time></trkpt><trkpt lat="42.13577152864538" lon="-1.154319862391759"><ele>326.0</ele><time>2026-03-30T16:28:47Z</time></trkpt><trkpt lat="42.13553525811935" lon="-1.1541087897126596"><ele>326.0</ele><time>2026-03-30T16:28:48Z</time></trkpt><trkpt lat="42.13530368428439" lon="-1.153908982508993"><ele>326.0</ele><time>2026-03-30T16:28:49Z</time></trkpt><trkpt lat="42.13507779057889" lon="-1.153712216594093"><ele>325.5</ele><time>2026-03-30T16:28:50Z</time></trkpt><trkpt lat="42.13485428270898" lon="-1.1535153745946394"><ele>325.0</ele><time>2026-03-30T16:28:51Z</time></trkpt><trkpt lat="42.134626458636184" lon="-1.1533248388108102"><ele>323.5</ele><time>2026-03-30T16:28:52Z</time></trkpt><trkpt lat="42.1343955617248" lon="-1.1531279168552786"><ele>322.0</ele><time>2026-03-30T16:28:53Z</time></trkpt><trkpt lat="42.13415731675606" lon="-1.1529212823569857"><ele>321.0</ele><time>2026-03-30T16:28:54Z</time></trkpt><trkpt lat="42.13392445564902" lon="-1.1527161902308962"><ele>320.0</ele><time>2026-03-30T16:28:55Z</time></trkpt><trkpt lat="42.133695401792004" lon="-1.1525179764834406"><ele>320.0</ele><time>2026-03-30T16:28:56Z</time></trkpt><trkpt lat="42.133471360802574" lon="-1.152323214861936"><ele>320.0</ele><time>2026-03-30T16:28:57Z</time></trkpt><trkpt lat="42.133247199472564" lon="-1.15213378601673"><ele>319.5</ele><time>2026-03-30T16:28:58Z</time></trkpt><trkpt lat="42.13302639204594" lon="-1.1519444264675447"><ele>319.0</ele><time>2026-03-30T16:28:59Z</time></trkpt><trkpt lat="42.13280501136944" lon="-1.15175492973576"><ele>319.0</ele><time>2026-03-30T16:29:00Z</time></trkpt><trkpt lat="42.13258018721665" lon="-1.1515614402447374"><ele>319.0</ele><time>2026-03-30T16:29:01Z</time></trkpt><trkpt lat="42.13236024942002" lon="-1.151376743644611"><ele>320.0</ele><time>2026-03-30T16:29:02Z</time></trkpt><trkpt lat="42.132151145215076" lon="-1.1511990679806747"><ele>321.0</ele><time>2026-03-30T16:29:03Z</time></trkpt><trkpt lat="42.1319597222401" lon="-1.1510255496855564"><ele>321.0</ele><time>2026-03-30T16:29:04Z</time></trkpt><trkpt lat="42.13178859938885" lon="-1.1508754134431323"><ele>321.0</ele><time>2026-03-30T16:29:05Z</time></trkpt><trkpt lat="42.131618932654575" lon="-1.1507641197083605"><ele>321.0</ele><time>2026-03-30T16:29:06Z</time></trkpt><trkpt lat="42.131445836961625" lon="-1.1506569852615025"><ele>320.3333333333333</ele><time>2026-03-30T16:29:07Z</time></trkpt><trkpt lat="42.13124884011086" lon="-1.1505670863063284"><ele>319.66666666666663</ele><time>2026-03-30T16:29:08Z</time></trkpt><trkpt lat="42.13103013045811" lon="-1.1505943754331889"><ele>319.0</ele><time>2026-03-30T16:29:09Z</time></trkpt><trkpt lat="42.13080463693194" lon="-1.15073701773907"><ele>318.0</ele><time>2026-03-30T16:29:10Z</time></trkpt><trkpt lat="42.13059371203858" lon="-1.150924899123718"><ele>317.0</ele><time>2026-03-30T16:29:11Z</time></trkpt><trkpt lat="42.130393874827824" lon="-1.1511184997774506"><ele>317.0</ele><time>2026-03-30T16:29:12Z</time></trkpt><trkpt lat="42.13018824416822" lon="-1.1512571472814355"><ele>317.0</ele><time>2026-03-30T16:29:13Z</time></trkpt><trkpt lat="42.12997055978289" lon="-1.1512733507952597"><ele>317.0</ele><time>2026-03-30T16:29:14Z</time></trkpt><trkpt lat="42.12974536864954" lon="-1.151205285903781"><ele>317.0</ele><time>2026-03-30T16:29:15Z</time></trkpt><trkpt lat="42.1295393502702" lon="-1.1510863817116581"><ele>317.0</ele><time>2026-03-30T16:29:16Z</time></trkpt><trkpt lat="42.12936871259896" lon="-1.1510131803901278"><ele>317.0</ele><time>2026-03-30T16:29:17Z</time></trkpt><trkpt lat="42.12923472583463" lon="-1.1509436708875744"><ele>317.0</ele><time>2026-03-30T16:29:18Z</time></trkpt><trkpt lat="42.129101514565455" lon="-1.150970789759321"><ele>317.0</ele><time>2026-03-30T16:29:19Z</time></trkpt><trkpt lat="42.1289966409083" lon="-1.1510623107511377"><ele>317.0</ele><time>2026-03-30T16:29:20Z</time></trkpt><trkpt lat="42.12890002443989" lon="-1.1511537315221927"><ele>317.0</ele><time>2026-03-30T16:29:21Z</time></trkpt><trkpt lat="42.12878840822456" lon="-1.1512060537235846"><ele>317.25</ele><time>2026-03-30T16:29:22Z</time></trkpt><trkpt lat="42.12866327055669" lon="-1.151195236527311"><ele>317.5</ele><time>2026-03-30T16:29:23Z</time></trkpt><trkpt lat="42.12855376978647" lon="-1.1511303372728494"><ele>317.75</ele><time>2026-03-30T16:29:24Z</time></trkpt><trkpt lat="42.12845416143897" lon="-1.1510186689699808"><ele>318.0</ele><time>2026-03-30T16:29:25Z</time></trkpt><trkpt lat="42.12838948416921" lon="-1.1508450311591607"><ele>317.75</ele><time>2026-03-30T16:29:26Z</time></trkpt><trkpt lat="42.12836559814975" lon="-1.150651758384324"><ele>317.5</ele><time>2026-03-30T16:29:27Z</time></trkpt><trkpt lat="42.12838608125249" lon="-1.150459396340597"><ele>317.25</ele><time>2026-03-30T16:29:28Z</time></trkpt><trkpt lat="42.12844414451501" lon="-1.1502879460787223"><ele>317.0</ele><time>2026-03-30T16:29:29Z</time></trkpt><trkpt lat="42.12849431635472" lon="-1.1501238299882932"><ele>317.0</ele><time>2026-03-30T16:29:30Z</time></trkpt><trkpt lat="42.12851105496228" lon="-1.1499511650772054"><ele>317.0</ele><time>2026-03-30T16:29:31Z</time></trkpt><trkpt lat="42.12845494185722" lon="-1.1497751348717873"><ele>317.0</ele><time>2026-03-30T16:29:32Z</time></trkpt><trkpt lat="42.12839908455182" lon="-1.149564184282135"><ele>317.0</ele><time>2026-03-30T16:29:33Z</time></trkpt><trkpt lat="42.128302496629225" lon="-1.1493217651883951"><ele>317.33333333333337</ele><time>2026-03-30T16:29:34Z</time></trkpt><trkpt lat="42.12821434518276" lon="-1.1490481453885744"><ele>317.6666666666667</ele><time>2026-03-30T16:29:35Z</time></trkpt><trkpt lat="42.128144436938186" lon="-1.148810720860012"><ele>318.0</ele><time>2026-03-30T16:29:36Z</time></trkpt><trkpt lat="42.12807618550908" lon="-1.148577284127077"><ele>318.0</ele><time>2026-03-30T16:29:37Z</time></trkpt><trkpt lat="42.12800248820015" lon="-1.1483410673580683"><ele>318.0</ele><time>2026-03-30T16:29:38Z</time></trkpt><trkpt lat="42.12792975662137" lon="-1.148107335659527"><ele>318.0</ele><time>2026-03-30T16:29:39Z</time></trkpt><trkpt lat="42.12785864584506" lon="-1.1478878354477746"><ele>318.0</ele><time>2026-03-30T16:29:40Z</time></trkpt><trkpt lat="42.12779982106872" lon="-1.1477064417478262"><ele>318.0</ele><time>2026-03-30T16:29:41Z</time></trkpt><trkpt lat="42.12775586675113" lon="-1.1475438505582924"><ele>318.0</ele><time>2026-03-30T16:29:42Z</time></trkpt><trkpt lat="42.12773480562574" lon="-1.147411796446308"><ele>318.0</ele><time>2026-03-30T16:29:43Z</time></trkpt><trkpt lat="42.127741746752456" lon="-1.1472946886737632"><ele>318.0</ele><time>2026-03-30T16:29:44Z</time></trkpt><trkpt lat="42.127718789298825" lon="-1.1472020185638754"><ele>318.0</ele><time>2026-03-30T16:29:45Z</time></trkpt><trkpt lat="42.12766316094953" lon="-1.147104345088248"><ele>318.0</ele><time>2026-03-30T16:29:46Z</time></trkpt><trkpt lat="42.12756629468094" lon="-1.1469380153182624"><ele>318.0</ele><time>2026-03-30T16:29:47Z</time></trkpt><trkpt lat="42.12752379709643" lon="-1.1467722487368996"><ele>318.0</ele><time>2026-03-30T16:29:48Z</time></trkpt><trkpt lat="42.12752809536918" lon="-1.1466432548413827"><ele>318.0</ele><time>2026-03-30T16:29:49Z</time></trkpt><trkpt lat="42.127503494775176" lon="-1.1465448536158305"><ele>318.0</ele><time>2026-03-30T16:29:50Z</time></trkpt><trkpt lat="42.12747741850125" lon="-1.1464405483832856"><ele>318.0</ele><time>2026-03-30T16:29:51Z</time></trkpt><trkpt lat="42.127453763453076" lon="-1.1463459295136353"><ele>318.0</ele><time>2026-03-30T16:29:52Z</time></trkpt><trkpt lat="42.12742806431489" lon="-1.1462431362952943"><ele>318.0</ele><time>2026-03-30T16:29:53Z</time></trkpt><trkpt lat="42.127333705458184" lon="-1.1461529843420473"><ele>317.8</ele><time>2026-03-30T16:29:54Z</time></trkpt><trkpt lat="42.127278280253066" lon="-1.1460410791115196"><ele>317.6</ele><time>2026-03-30T16:29:55Z</time></trkpt><trkpt lat="42.12721520865141" lon="-1.1459271946066432"><ele>317.4</ele><time>2026-03-30T16:29:56Z</time></trkpt><trkpt lat="42.127153386022776" lon="-1.1458085845075092"><ele>317.2</ele><time>2026-03-30T16:29:57Z</time></trkpt><trkpt lat="42.12708285945883" lon="-1.1457038800267474"><ele>317.0</ele><time>2026-03-30T16:29:58Z</time></trkpt><trkpt lat="42.127030520931854" lon="-1.1456003303992324"><ele>316.75</ele><time>2026-03-30T16:29:59Z</time></trkpt><trkpt lat="42.12699286896579" lon="-1.1455258374594035"><ele>316.5</ele><time>2026-03-30T16:30:00Z</time></trkpt><trkpt lat="42.12690268297906" lon="-1.1453470195456712"><ele>316.25</ele><time>2026-03-30T16:30:02Z</time></trkpt><trkpt lat="42.12682109523053" lon="-1.1451849305569384"><ele>316.0</ele><time>2026-03-30T16:30:03Z</time></trkpt><trkpt lat="42.12674258643038" lon="-1.1450289583527733"><ele>316.0</ele><time>2026-03-30T16:30:04Z</time></trkpt><trkpt lat="42.12669467772375" lon="-1.144888451364525"><ele>316.0</ele><time>2026-03-30T16:30:05Z</time></trkpt><trkpt lat="42.126641299988094" lon="-1.144787128835798"><ele>316.0</ele><time>2026-03-30T16:30:06Z</time></trkpt><trkpt lat="42.12659372829868" lon="-1.144697804279317"><ele>316.0</ele><time>2026-03-30T16:30:07Z</time></trkpt><trkpt lat="42.12654388022001" lon="-1.1445572234926908"><ele>316.0</ele><time>2026-03-30T16:30:09Z</time></trkpt><trkpt lat="42.12656237304525" lon="-1.144360105740946"><ele>316.0</ele><time>2026-03-30T16:30:12Z</time></trkpt><trkpt lat="42.126712571608955" lon="-1.1445847344214852"><ele>316.0</ele><time>2026-03-30T16:30:14Z</time></trkpt><trkpt lat="42.12666437884192" lon="-1.1446673161659398"><ele>316.0</ele><time>2026-03-30T16:30:15Z</time></trkpt><trkpt lat="42.12672898895429" lon="-1.1446192289154522"><ele>316.0</ele><time>2026-03-30T16:30:26Z</time></trkpt><trkpt lat="42.12664550031504" lon="-1.144665551136576"><ele>316.0</ele><time>2026-03-30T16:30:31Z</time></trkpt><trkpt lat="42.12671545662642" lon="-1.1446125895696893"><ele>316.0</ele><time>2026-03-30T16:30:35Z</time></trkpt><trkpt lat="42.126631198911355" lon="-1.1446744340935235"><ele>316.0</ele><time>2026-03-30T16:30:37Z</time></trkpt><trkpt lat="42.12657403626365" lon="-1.1447353287059374"><ele>316.0</ele><time>2026-03-30T16:30:43Z</time></trkpt><trkpt lat="42.126537071799135" lon="-1.1446149177086011"><ele>316.0</ele><time>2026-03-30T16:30:46Z</time></trkpt><trkpt lat="42.12658419395981" lon="-1.1447318977282668"><ele>316.0</ele><time>2026-03-30T16:30:49Z</time></trkpt><trkpt lat="42.12653852764173" lon="-1.1446138813449505"><ele>316.0</ele><time>2026-03-30T16:30:52Z</time></trkpt><trkpt lat="42.12658499307724" lon="-1.1447311743075588"><ele>316.0</ele><time>2026-03-30T16:30:55Z</time></trkpt><trkpt lat="42.12653984390488" lon="-1.144612944294359"><ele>316.0</ele><time>2026-03-30T16:30:58Z</time></trkpt><trkpt lat="42.12658467156165" lon="-1.1447263314493537"><ele>316.0</ele><time>2026-03-30T16:31:01Z</time></trkpt><trkpt lat="42.12654032454173" lon="-1.1446126021853942"><ele>316.0</ele><time>2026-03-30T16:31:03Z</time></trkpt><trkpt lat="42.12658546754663" lon="-1.1447167828773341"><ele>316.0</ele><time>2026-03-30T16:31:13Z</time></trkpt><trkpt lat="42.12668684666562" lon="-1.1445455400181002"><ele>316.0</ele><time>2026-03-30T16:31:53Z</time></trkpt><trkpt lat="42.126749878741556" lon="-1.1445637931705002"><ele>316.0</ele><time>2026-03-30T16:32:45Z</time></trkpt><trkpt lat="42.12666776351339" lon="-1.1446013995757676"><ele>316.0</ele><time>2026-03-30T16:33:51Z</time></trkpt><trkpt lat="42.126682985227575" lon="-1.1446928837147479"><ele>316.0</ele><time>2026-03-30T16:36:31Z</time></trkpt><trkpt lat="42.1267249101853" lon="-1.1447769475836247"><ele>316.0</ele><time>2026-03-30T16:36:35Z</time></trkpt><trkpt lat="42.12676803386536" lon="-1.144852264370141"><ele>316.0</ele><time>2026-03-30T16:36:39Z</time></trkpt><trkpt lat="42.12678821611043" lon="-1.144941469617288"><ele>316.0</ele><time>2026-03-30T16:36:43Z</time></trkpt><trkpt lat="42.126807517951086" lon="-1.1450548479007603"><ele>316.0</ele><time>2026-03-30T16:36:57Z</time></trkpt><trkpt lat="42.12685421607542" lon="-1.1451404005877903"><ele>316.0</ele><time>2026-03-30T16:36:58Z</time></trkpt><trkpt lat="42.12691224555518" lon="-1.145241091566741"><ele>316.0</ele><time>2026-03-30T16:36:59Z</time></trkpt><trkpt lat="42.12696661184166" lon="-1.1453433574781313"><ele>316.0</ele><time>2026-03-30T16:37:00Z</time></trkpt><trkpt lat="42.127025281225386" lon="-1.1454625922777006"><ele>316.0</ele><time>2026-03-30T16:37:01Z</time></trkpt><trkpt lat="42.12709279247504" lon="-1.1455974087149379"><ele>316.0</ele><time>2026-03-30T16:37:02Z</time></trkpt><trkpt lat="42.12717018462508" lon="-1.145748169006559"><ele>316.0</ele><time>2026-03-30T16:37:03Z</time></trkpt><trkpt lat="42.12724709609115" lon="-1.1458949467454755"><ele>316.25</ele><time>2026-03-30T16:37:04Z</time></trkpt><trkpt lat="42.12732519026747" lon="-1.1460358214997466"><ele>316.5</ele><time>2026-03-30T16:37:05Z</time></trkpt><trkpt lat="42.12740087142795" lon="-1.1461657984443863"><ele>316.75</ele><time>2026-03-30T16:37:06Z</time></trkpt><trkpt lat="42.12747584225872" lon="-1.1462903664108617"><ele>317.0</ele><time>2026-03-30T16:37:07Z</time></trkpt><trkpt lat="42.1275524550442" lon="-1.146407989208086"><ele>317.0</ele><time>2026-03-30T16:37:08Z</time></trkpt><trkpt lat="42.12764130533615" lon="-1.1465033249985646"><ele>317.0</ele><time>2026-03-30T16:37:09Z</time></trkpt><trkpt lat="42.12775541880382" lon="-1.1465610307280731"><ele>317.0</ele><time>2026-03-30T16:37:10Z</time></trkpt><trkpt lat="42.12786965459772" lon="-1.146566634509327"><ele>317.0</ele><time>2026-03-30T16:37:11Z</time></trkpt><trkpt lat="42.127963268834975" lon="-1.146595591660833"><ele>317.0</ele><time>2026-03-30T16:37:12Z</time></trkpt><trkpt lat="42.1280359653792" lon="-1.146686229943342"><ele>317.25</ele><time>2026-03-30T16:37:13Z</time></trkpt><trkpt lat="42.12806314325966" lon="-1.146839369692234"><ele>317.5</ele><time>2026-03-30T16:37:14Z</time></trkpt><trkpt lat="42.12804384430078" lon="-1.1470177333031466"><ele>317.75</ele><time>2026-03-30T16:37:15Z</time></trkpt><trkpt lat="42.12796759891959" lon="-1.147164974649568"><ele>318.0</ele><time>2026-03-30T16:37:16Z</time></trkpt><trkpt lat="42.12786251389737" lon="-1.1472802950007577"><ele>317.75</ele><time>2026-03-30T16:37:17Z</time></trkpt><trkpt lat="42.127792995216474" lon="-1.1474211128100482"><ele>317.5</ele><time>2026-03-30T16:37:18Z</time></trkpt><trkpt lat="42.12779266841227" lon="-1.147597406073866"><ele>317.25</ele><time>2026-03-30T16:37:19Z</time></trkpt><trkpt lat="42.12785612460716" lon="-1.147765579985964"><ele>317.0</ele><time>2026-03-30T16:37:20Z</time></trkpt><trkpt lat="42.12794813703709" lon="-1.147959687514976"><ele>317.0</ele><time>2026-03-30T16:37:21Z</time></trkpt><trkpt lat="42.12803140253766" lon="-1.1481753644800086"><ele>317.0</ele><time>2026-03-30T16:37:22Z</time></trkpt><trkpt lat="42.1280939600164" lon="-1.1483946366935553"><ele>317.0</ele><time>2026-03-30T16:37:23Z</time></trkpt><trkpt lat="42.128154430858515" lon="-1.1486176989270953"><ele>317.0</ele><time>2026-03-30T16:37:24Z</time></trkpt><trkpt lat="42.12821731938963" lon="-1.1488329162948632"><ele>317.0</ele><time>2026-03-30T16:37:25Z</time></trkpt><trkpt lat="42.12828098667522" lon="-1.1490402679971974"><ele>317.0</ele><time>2026-03-30T16:37:26Z</time></trkpt><trkpt lat="42.1283401454132" lon="-1.1492321045947347"><ele>317.0</ele><time>2026-03-30T16:37:27Z</time></trkpt><trkpt lat="42.128396213944555" lon="-1.1494141633164765"><ele>317.0</ele><time>2026-03-30T16:37:28Z</time></trkpt><trkpt lat="42.12844155297878" lon="-1.149567310429211"><ele>317.0</ele><time>2026-03-30T16:37:29Z</time></trkpt><trkpt lat="42.128484106115074" lon="-1.1497015416006753"><ele>317.0</ele><time>2026-03-30T16:37:30Z</time></trkpt><trkpt lat="42.128525829882165" lon="-1.1498221352195601"><ele>317.0</ele><time>2026-03-30T16:37:31Z</time></trkpt><trkpt lat="42.12856669152482" lon="-1.1499306073025075"><ele>317.0</ele><time>2026-03-30T16:37:32Z</time></trkpt><trkpt lat="42.12860926401349" lon="-1.1500346391445335"><ele>317.0</ele><time>2026-03-30T16:37:33Z</time></trkpt><trkpt lat="42.12868824094034" lon="-1.150125435201214"><ele>317.0</ele><time>2026-03-30T16:37:34Z</time></trkpt><trkpt lat="42.12880258071633" lon="-1.1501923995572763"><ele>317.0</ele><time>2026-03-30T16:37:35Z</time></trkpt><trkpt lat="42.12893475397222" lon="-1.1502479703200825"><ele>317.0</ele><time>2026-03-30T16:37:36Z</time></trkpt><trkpt lat="42.12905104296833" lon="-1.1503321496090888"><ele>317.0</ele><time>2026-03-30T16:37:37Z</time></trkpt><trkpt lat="42.129130710779144" lon="-1.1504883300838002"><ele>317.0</ele><time>2026-03-30T16:37:38Z</time></trkpt><trkpt lat="42.12916727869858" lon="-1.1506778437976923"><ele>317.0</ele><time>2026-03-30T16:37:39Z</time></trkpt><trkpt lat="42.12915443002322" lon="-1.1508875607630806"><ele>317.0</ele><time>2026-03-30T16:37:40Z</time></trkpt><trkpt lat="42.129095611302944" lon="-1.1510865452152417"><ele>317.0</ele><time>2026-03-30T16:37:41Z</time></trkpt><trkpt lat="42.12901295665966" lon="-1.1512859733351033"><ele>317.0</ele><time>2026-03-30T16:37:42Z</time></trkpt><trkpt lat="42.1290018494966" lon="-1.151506867327745"><ele>316.6666666666667</ele><time>2026-03-30T16:37:43Z</time></trkpt><trkpt lat="42.12910049254377" lon="-1.1517453010427932"><ele>316.3333333333333</ele><time>2026-03-30T16:37:44Z</time></trkpt><trkpt lat="42.129189710266466" lon="-1.151987790628775"><ele>316.0</ele><time>2026-03-30T16:37:45Z</time></trkpt><trkpt lat="42.12929664790048" lon="-1.152246918959101"><ele>315.66666666666663</ele><time>2026-03-30T16:37:46Z</time></trkpt><trkpt lat="42.1293751422382" lon="-1.1524977197758437"><ele>315.3333333333333</ele><time>2026-03-30T16:37:47Z</time></trkpt><trkpt lat="42.12943671029316" lon="-1.1527192655654723"><ele>315.0</ele><time>2026-03-30T16:37:48Z</time></trkpt><trkpt lat="42.12950732533195" lon="-1.1529474370125816"><ele>315.0</ele><time>2026-03-30T16:37:49Z</time></trkpt><trkpt lat="42.129579601796586" lon="-1.1531722613073305"><ele>315.0</ele><time>2026-03-30T16:37:50Z</time></trkpt><trkpt lat="42.12965062140171" lon="-1.1534143702892987"><ele>315.0</ele><time>2026-03-30T16:37:51Z</time></trkpt><trkpt lat="42.12972217428492" lon="-1.1536614229187752"><ele>315.0</ele><time>2026-03-30T16:37:52Z</time></trkpt><trkpt lat="42.12979757856803" lon="-1.1539081654669678"><ele>315.0</ele><time>2026-03-30T16:37:53Z</time></trkpt><trkpt lat="42.12987440949745" lon="-1.1541556017375583"><ele>315.0</ele><time>2026-03-30T16:37:54Z</time></trkpt><trkpt lat="42.129947890239066" lon="-1.1544018803434632"><ele>315.6666666666667</ele><time>2026-03-30T16:37:55Z</time></trkpt><trkpt lat="42.13002521639808" lon="-1.1546534263159813"><ele>316.33333333333337</ele><time>2026-03-30T16:37:56Z</time></trkpt><trkpt lat="42.130108447762844" lon="-1.154905753709153"><ele>317.0</ele><time>2026-03-30T16:37:57Z</time></trkpt><trkpt lat="42.130193179331044" lon="-1.1551612600005754"><ele>317.0</ele><time>2026-03-30T16:37:58Z</time></trkpt><trkpt lat="42.130272597082524" lon="-1.1554238460865303"><ele>317.0</ele><time>2026-03-30T16:37:59Z</time></trkpt><trkpt lat="42.13034706100128" lon="-1.1556856866178173"><ele>317.0</ele><time>2026-03-30T16:38:00Z</time></trkpt><trkpt lat="42.13042158734026" lon="-1.1559444830157237"><ele>317.33333333333337</ele><time>2026-03-30T16:38:01Z</time></trkpt><trkpt lat="42.13049760720687" lon="-1.1561984367230675"><ele>317.6666666666667</ele><time>2026-03-30T16:38:02Z</time></trkpt><trkpt lat="42.13057490666081" lon="-1.1564455165052743"><ele>318.0</ele><time>2026-03-30T16:38:03Z</time></trkpt><trkpt lat="42.13064798947707" lon="-1.1566857861255007"><ele>320.5</ele><time>2026-03-30T16:38:04Z</time></trkpt><trkpt lat="42.130788383188516" lon="-1.1571508203746244"><ele>323.0</ele><time>2026-03-30T16:38:06Z</time></trkpt><trkpt lat="42.130855454050916" lon="-1.1573674624385935"><ele>323.33333333333337</ele><time>2026-03-30T16:38:07Z</time></trkpt><trkpt lat="42.13092633424165" lon="-1.157576045050317"><ele>323.6666666666667</ele><time>2026-03-30T16:38:08Z</time></trkpt><trkpt lat="42.13099302112008" lon="-1.1577632532870528"><ele>324.0</ele><time>2026-03-30T16:38:09Z</time></trkpt><trkpt lat="42.13113596466629" lon="-1.15788022538887"><ele>324.0</ele><time>2026-03-30T16:38:10Z</time></trkpt><trkpt lat="42.1312267658779" lon="-1.1580554714365665"><ele>324.0</ele><time>2026-03-30T16:38:11Z</time></trkpt><trkpt lat="42.13126304500064" lon="-1.1582782549641848"><ele>324.0</ele><time>2026-03-30T16:38:12Z</time></trkpt><trkpt lat="42.1312343107659" lon="-1.1585470918806595"><ele>324.0</ele><time>2026-03-30T16:38:13Z</time></trkpt><trkpt lat="42.13127029952243" lon="-1.1588114679950143"><ele>324.0</ele><time>2026-03-30T16:38:14Z</time></trkpt><trkpt lat="42.131362481806555" lon="-1.1590750992564356"><ele>324.0</ele><time>2026-03-30T16:38:15Z</time></trkpt><trkpt lat="42.13146280702103" lon="-1.159325564838336"><ele>323.6666666666667</ele><time>2026-03-30T16:38:16Z</time></trkpt><trkpt lat="42.131543839454515" lon="-1.1595902686040727"><ele>323.33333333333337</ele><time>2026-03-30T16:38:17Z</time></trkpt><trkpt lat="42.13161757731645" lon="-1.1598558999727577"><ele>323.0</ele><time>2026-03-30T16:38:18Z</time></trkpt><trkpt lat="42.131696771336344" lon="-1.1601198897535256"><ele>324.0</ele><time>2026-03-30T16:38:19Z</time></trkpt><trkpt lat="42.131777382590755" lon="-1.1603834248495144"><ele>325.0</ele><time>2026-03-30T16:38:20Z</time></trkpt><trkpt lat="42.13185356529127" lon="-1.1606408821651941"><ele>326.0</ele><time>2026-03-30T16:38:21Z</time></trkpt><trkpt lat="42.13192646831771" lon="-1.1608991818463472"><ele>326.0</ele><time>2026-03-30T16:38:22Z</time></trkpt><trkpt lat="42.1319886497429" lon="-1.1611571440385844"><ele>326.0</ele><time>2026-03-30T16:38:23Z</time></trkpt><trkpt lat="42.13203885029606" lon="-1.1614150832309285"><ele>326.0</ele><time>2026-03-30T16:38:24Z</time></trkpt><trkpt lat="42.132081554551156" lon="-1.1616753949458951"><ele>326.0</ele><time>2026-03-30T16:38:25Z</time></trkpt><trkpt lat="42.13211498798315" lon="-1.1619409980466036"><ele>326.0</ele><time>2026-03-30T16:38:26Z</time></trkpt><trkpt lat="42.1321458451224" lon="-1.1622049457665955"><ele>326.0</ele><time>2026-03-30T16:38:27Z</time></trkpt><trkpt lat="42.132175479628216" lon="-1.1624699315139957"><ele>325.33333333333337</ele><time>2026-03-30T16:38:28Z</time></trkpt><trkpt lat="42.132197762007976" lon="-1.1627338802644391"><ele>324.6666666666667</ele><time>2026-03-30T16:38:29Z</time></trkpt><trkpt lat="42.13221870427972" lon="-1.163000778190302"><ele>324.0</ele><time>2026-03-30T16:38:30Z</time></trkpt><trkpt lat="42.13224681372201" lon="-1.1632755989295887"><ele>323.6666666666667</ele><time>2026-03-30T16:38:31Z</time></trkpt><trkpt lat="42.13227025985907" lon="-1.1635497031341342"><ele>323.33333333333337</ele><time>2026-03-30T16:38:32Z</time></trkpt><trkpt lat="42.132292445842104" lon="-1.1638239931337016"><ele>323.0</ele><time>2026-03-30T16:38:33Z</time></trkpt><trkpt lat="42.132318469537886" lon="-1.164096092563916"><ele>323.0</ele><time>2026-03-30T16:38:34Z</time></trkpt><trkpt lat="42.13234094697532" lon="-1.1643690045784967"><ele>323.0</ele><time>2026-03-30T16:38:35Z</time></trkpt><trkpt lat="42.13236258815634" lon="-1.1646474620257181"><ele>323.0</ele><time>2026-03-30T16:38:36Z</time></trkpt><trkpt lat="42.13239652614201" lon="-1.164925463310792"><ele>324.0</ele><time>2026-03-30T16:38:37Z</time></trkpt><trkpt lat="42.13243077787366" lon="-1.1652042839319035"><ele>325.0</ele><time>2026-03-30T16:38:38Z</time></trkpt><trkpt lat="42.13245059881651" lon="-1.165477160573693"><ele>326.0</ele><time>2026-03-30T16:38:39Z</time></trkpt><trkpt lat="42.13246646473853" lon="-1.1657464777949291"><ele>326.6666666666667</ele><time>2026-03-30T16:38:40Z</time></trkpt><trkpt lat="42.13248826448032" lon="-1.1660187768100354"><ele>327.3333333333333</ele><time>2026-03-30T16:38:41Z</time></trkpt><trkpt lat="42.13251190050363" lon="-1.1662948635779602"><ele>328.0</ele><time>2026-03-30T16:38:42Z</time></trkpt><trkpt lat="42.1325370214507" lon="-1.1665702711140573"><ele>329.0</ele><time>2026-03-30T16:38:43Z</time></trkpt><trkpt lat="42.13255006231499" lon="-1.1668458531875456"><ele>330.0</ele><time>2026-03-30T16:38:44Z</time></trkpt><trkpt lat="42.13258228385132" lon="-1.1671284031363849"><ele>331.0</ele><time>2026-03-30T16:38:45Z</time></trkpt><trkpt lat="42.13261470777485" lon="-1.1674044599095994"><ele>332.0</ele><time>2026-03-30T16:38:46Z</time></trkpt><trkpt lat="42.132646748136985" lon="-1.167692344727036"><ele>333.0</ele><time>2026-03-30T16:38:47Z</time></trkpt><trkpt lat="42.13269078675532" lon="-1.1679798859903883"><ele>334.0</ele><time>2026-03-30T16:38:48Z</time></trkpt><trkpt lat="42.13269785050275" lon="-1.16827092346778"><ele>334.66666666666663</ele><time>2026-03-30T16:38:49Z</time></trkpt><trkpt lat="42.132712617693805" lon="-1.1685583572747245"><ele>335.3333333333333</ele><time>2026-03-30T16:38:50Z</time></trkpt><trkpt lat="42.13272106539221" lon="-1.168845975932232"><ele>336.0</ele><time>2026-03-30T16:38:51Z</time></trkpt><trkpt lat="42.132726939407696" lon="-1.1691295934968533"><ele>336.0</ele><time>2026-03-30T16:38:52Z</time></trkpt><trkpt lat="42.13272972270441" lon="-1.1694077925863835"><ele>336.0</ele><time>2026-03-30T16:38:53Z</time></trkpt><trkpt lat="42.132746800551246" lon="-1.1696890493201666"><ele>336.0</ele><time>2026-03-30T16:38:54Z</time></trkpt><trkpt lat="42.1327442234746" lon="-1.16997947080236"><ele>335.3333333333333</ele><time>2026-03-30T16:38:55Z</time></trkpt><trkpt lat="42.13274304139988" lon="-1.1702608369816359"><ele>334.66666666666663</ele><time>2026-03-30T16:38:56Z</time></trkpt><trkpt lat="42.132726241829964" lon="-1.1705469332361746"><ele>334.0</ele><time>2026-03-30T16:38:57Z</time></trkpt><trkpt lat="42.13272580292153" lon="-1.1708356908552615"><ele>334.0</ele><time>2026-03-30T16:38:58Z</time></trkpt><trkpt lat="42.132725376320515" lon="-1.1711163515291294"><ele>334.0</ele><time>2026-03-30T16:38:59Z</time></trkpt><trkpt lat="42.132724933684074" lon="-1.171407561580266"><ele>334.0</ele><time>2026-03-30T16:39:00Z</time></trkpt><trkpt lat="42.13274136230389" lon="-1.1716858045914373"><ele>334.0</ele><time>2026-03-30T16:39:01Z</time></trkpt><trkpt lat="42.13273975290112" lon="-1.17196823200626"><ele>334.0</ele><time>2026-03-30T16:39:02Z</time></trkpt><trkpt lat="42.132747342503414" lon="-1.172243256321445"><ele>334.0</ele><time>2026-03-30T16:39:03Z</time></trkpt><trkpt lat="42.13275236230555" lon="-1.1725124589111384"><ele>334.3333333333333</ele><time>2026-03-30T16:39:04Z</time></trkpt><trkpt lat="42.13274794849253" lon="-1.1727962685238933"><ele>334.6666666666667</ele><time>2026-03-30T16:39:05Z</time></trkpt><trkpt lat="42.13274333710156" lon="-1.1730815611252263"><ele>335.0</ele><time>2026-03-30T16:39:06Z</time></trkpt><trkpt lat="42.13274489127694" lon="-1.1733705936214103"><ele>335.33333333333337</ele><time>2026-03-30T16:39:07Z</time></trkpt><trkpt lat="42.132721677213986" lon="-1.1736597661325348"><ele>335.6666666666667</ele><time>2026-03-30T16:39:08Z</time></trkpt><trkpt lat="42.13272136937577" lon="-1.1739470442204163"><ele>336.0</ele><time>2026-03-30T16:39:09Z</time></trkpt><trkpt lat="42.13272106234482" lon="-1.1742335683608913"><ele>336.0</ele><time>2026-03-30T16:39:10Z</time></trkpt><trkpt lat="42.132720759162645" lon="-1.1745165007589138"><ele>336.0</ele><time>2026-03-30T16:39:11Z</time></trkpt><trkpt lat="42.132720459945055" lon="-1.1747957337549852"><ele>336.0</ele><time>2026-03-30T16:39:12Z</time></trkpt><trkpt lat="42.13272014656365" lon="-1.1750881845378005"><ele>335.6666666666667</ele><time>2026-03-30T16:39:13Z</time></trkpt><trkpt lat="42.132719114264106" lon="-1.1753808614943375"><ele>335.33333333333337</ele><time>2026-03-30T16:39:14Z</time></trkpt><trkpt lat="42.13271563797958" lon="-1.175674670719023"><ele>335.0</ele><time>2026-03-30T16:39:15Z</time></trkpt><trkpt lat="42.132709144064485" lon="-1.1759601897347707"><ele>335.0</ele><time>2026-03-30T16:39:16Z</time></trkpt><trkpt lat="42.1326984972697" lon="-1.1762462004075191"><ele>335.0</ele><time>2026-03-30T16:39:17Z</time></trkpt><trkpt lat="42.13268164635993" lon="-1.176550810110273"><ele>335.0</ele><time>2026-03-30T16:39:18Z</time></trkpt><trkpt lat="42.132664173966184" lon="-1.1768666539977468"><ele>335.5</ele><time>2026-03-30T16:39:19Z</time></trkpt><trkpt lat="42.13268791799004" lon="-1.177188765777259"><ele>336.0</ele><time>2026-03-30T16:39:20Z</time></trkpt><trkpt lat="42.132655345871505" lon="-1.1774982704184274"><ele>337.0</ele><time>2026-03-30T16:39:21Z</time></trkpt><trkpt lat="42.13264102715226" lon="-1.177809123500911"><ele>338.0</ele><time>2026-03-30T16:39:22Z</time></trkpt><trkpt lat="42.13263771410071" lon="-1.1781177374206668"><ele>336.5</ele><time>2026-03-30T16:39:23Z</time></trkpt><trkpt lat="42.13264081260673" lon="-1.1784207362901367"><ele>335.0</ele><time>2026-03-30T16:39:24Z</time></trkpt><trkpt lat="42.13264331654063" lon="-1.1787245087581264"><ele>334.6666666666667</ele><time>2026-03-30T16:39:25Z</time></trkpt><trkpt lat="42.13264386566145" lon="-1.1790294485815416"><ele>334.3333333333333</ele><time>2026-03-30T16:39:26Z</time></trkpt><trkpt lat="42.13264311798003" lon="-1.1793303587686557"><ele>334.0</ele><time>2026-03-30T16:39:27Z</time></trkpt><trkpt lat="42.132648912141754" lon="-1.1796280615842754"><ele>334.0</ele><time>2026-03-30T16:39:28Z</time></trkpt><trkpt lat="42.13265513378814" lon="-1.1799163058801188"><ele>334.0</ele><time>2026-03-30T16:39:29Z</time></trkpt><trkpt lat="42.132650917516216" lon="-1.180193619806314"><ele>334.0</ele><time>2026-03-30T16:39:30Z</time></trkpt><trkpt lat="42.132650440503106" lon="-1.1804594884279214"><ele>334.3333333333333</ele><time>2026-03-30T16:39:31Z</time></trkpt><trkpt lat="42.1326527043659" lon="-1.1807176445956504"><ele>334.6666666666667</ele><time>2026-03-30T16:39:32Z</time></trkpt><trkpt lat="42.13264983234534" lon="-1.180971447693738"><ele>335.0</ele><time>2026-03-30T16:39:33Z</time></trkpt><trkpt lat="42.132646496885656" lon="-1.1812086331953626"><ele>335.0</ele><time>2026-03-30T16:39:34Z</time></trkpt><trkpt lat="42.132642441883476" lon="-1.1814153256609072"><ele>335.0</ele><time>2026-03-30T16:39:35Z</time></trkpt><trkpt lat="42.13264137808341" lon="-1.1816124334947957"><ele>335.0</ele><time>2026-03-30T16:39:36Z</time></trkpt><trkpt lat="42.13265602134401" lon="-1.1818051238241027"><ele>335.0</ele><time>2026-03-30T16:39:37Z</time></trkpt><trkpt lat="42.13269831763149" lon="-1.1819775417789"><ele>335.0</ele><time>2026-03-30T16:39:38Z</time></trkpt><trkpt lat="42.13277286692538" lon="-1.1821142981717685"><ele>335.0</ele><time>2026-03-30T16:39:39Z</time></trkpt><trkpt lat="42.1328583276238" lon="-1.182217244068209"><ele>335.0</ele><time>2026-03-30T16:39:40Z</time></trkpt><trkpt lat="42.13288381090924" lon="-1.1823482598611248"><ele>335.0</ele><time>2026-03-30T16:39:41Z</time></trkpt><trkpt lat="42.132876054392476" lon="-1.1824662444838008"><ele>335.0</ele><time>2026-03-30T16:39:42Z</time></trkpt><trkpt lat="42.132841614721464" lon="-1.1825765914621553"><ele>335.2</ele><time>2026-03-30T16:39:43Z</time></trkpt><trkpt lat="42.13278535124143" lon="-1.1826648121734717"><ele>335.4</ele><time>2026-03-30T16:39:44Z</time></trkpt><trkpt lat="42.132729641563884" lon="-1.1827562873339454"><ele>335.6</ele><time>2026-03-30T16:39:45Z</time></trkpt><trkpt lat="42.132689405877116" lon="-1.182875509608779"><ele>335.8</ele><time>2026-03-30T16:39:46Z</time></trkpt><trkpt lat="42.13263507200655" lon="-1.18302735550749"><ele>336.0</ele><time>2026-03-30T16:39:47Z</time></trkpt><trkpt lat="42.13260418106028" lon="-1.1832263514073402"><ele>336.3333333333333</ele><time>2026-03-30T16:39:48Z</time></trkpt><trkpt lat="42.13261241429449" lon="-1.1834814000523042"><ele>336.66666666666663</ele><time>2026-03-30T16:39:49Z</time></trkpt><trkpt lat="42.13260154200157" lon="-1.1837816850099434"><ele>337.0</ele><time>2026-03-30T16:39:50Z</time></trkpt><trkpt lat="42.1326241349635" lon="-1.1841048081007548"><ele>337.0</ele><time>2026-03-30T16:39:51Z</time></trkpt><trkpt lat="42.13264134672409" lon="-1.1844535925539437"><ele>337.0</ele><time>2026-03-30T16:39:52Z</time></trkpt><trkpt lat="42.13263722184507" lon="-1.1847951627821942"><ele>337.5</ele><time>2026-03-30T16:39:53Z</time></trkpt><trkpt lat="42.13263207318556" lon="-1.1851315645091642"><ele>338.0</ele><time>2026-03-30T16:39:54Z</time></trkpt><trkpt lat="42.13263328324665" lon="-1.185460093743889"><ele>338.5</ele><time>2026-03-30T16:39:55Z</time></trkpt><trkpt lat="42.132633600586395" lon="-1.1857791334271257"><ele>339.0</ele><time>2026-03-30T16:39:56Z</time></trkpt><trkpt lat="42.13263253181409" lon="-1.1861086152688687"><ele>339.0</ele><time>2026-03-30T16:39:57Z</time></trkpt><trkpt lat="42.13263075229193" lon="-1.1864321654634657"><ele>339.0</ele><time>2026-03-30T16:39:58Z</time></trkpt><trkpt lat="42.13262973107067" lon="-1.1867553462152003"><ele>338.5</ele><time>2026-03-30T16:39:59Z</time></trkpt><trkpt lat="42.13263123815494" lon="-1.1870726354653784"><ele>338.0</ele><time>2026-03-30T16:40:00Z</time></trkpt><trkpt lat="42.132633535910834" lon="-1.187383105545782"><ele>337.5</ele><time>2026-03-30T16:40:01Z</time></trkpt><trkpt lat="42.13262940741233" lon="-1.187690577826245"><ele>337.0</ele><time>2026-03-30T16:40:02Z</time></trkpt><trkpt lat="42.13262387251364" lon="-1.18799686690702"><ele>336.0</ele><time>2026-03-30T16:40:03Z</time></trkpt><trkpt lat="42.132626249692336" lon="-1.1883072412289926"><ele>335.0</ele><time>2026-03-30T16:40:04Z</time></trkpt><trkpt lat="42.132629299217555" lon="-1.1886229984694643"><ele>335.0</ele><time>2026-03-30T16:40:05Z</time></trkpt><trkpt lat="42.13262299439556" lon="-1.1889417185358417"><ele>335.0</ele><time>2026-03-30T16:40:06Z</time></trkpt><trkpt lat="42.13262072564755" lon="-1.1892650151868145"><ele>335.5</ele><time>2026-03-30T16:40:07Z</time></trkpt><trkpt lat="42.132624840019076" lon="-1.1895941004791128"><ele>336.0</ele><time>2026-03-30T16:40:08Z</time></trkpt><trkpt lat="42.13262279257104" lon="-1.1899155561757058"><ele>336.0</ele><time>2026-03-30T16:40:09Z</time></trkpt><trkpt lat="42.13262089576187" lon="-1.19024070839098"><ele>336.0</ele><time>2026-03-30T16:40:10Z</time></trkpt><trkpt lat="42.13262247322233" lon="-1.1905649693477267"><ele>336.5</ele><time>2026-03-30T16:40:11Z</time></trkpt><trkpt lat="42.13262487600396" lon="-1.1908857227173126"><ele>337.0</ele><time>2026-03-30T16:40:12Z</time></trkpt><trkpt lat="42.13262545615807" lon="-1.1912151665543815"><ele>337.5</ele><time>2026-03-30T16:40:13Z</time></trkpt><trkpt lat="42.132619816248685" lon="-1.1915566309942955"><ele>338.0</ele><time>2026-03-30T16:40:14Z</time></trkpt><trkpt lat="42.13261749650066" lon="-1.1919043499655042"><ele>338.0</ele><time>2026-03-30T16:40:15Z</time></trkpt><trkpt lat="42.13262042807644" lon="-1.1922329318177505"><ele>338.0</ele><time>2026-03-30T16:40:16Z</time></trkpt><trkpt lat="42.13262260498765" lon="-1.1925717453333133"><ele>338.5</ele><time>2026-03-30T16:40:17Z</time></trkpt><trkpt lat="42.13262071943758" lon="-1.1929038824176026"><ele>339.0</ele><time>2026-03-30T16:40:18Z</time></trkpt><trkpt lat="42.132621248360536" lon="-1.193235710559331"><ele>339.5</ele><time>2026-03-30T16:40:19Z</time></trkpt><trkpt lat="42.13262122960897" lon="-1.1935687673570115"><ele>340.0</ele><time>2026-03-30T16:40:20Z</time></trkpt><trkpt lat="42.13262278777976" lon="-1.1938949181535345"><ele>339.5</ele><time>2026-03-30T16:40:21Z</time></trkpt><trkpt lat="42.13262174518463" lon="-1.1942201553211746"><ele>339.0</ele><time>2026-03-30T16:40:22Z</time></trkpt><trkpt lat="42.13261672576397" lon="-1.1945479795078828"><ele>339.5</ele><time>2026-03-30T16:40:23Z</time></trkpt><trkpt lat="42.13261492130802" lon="-1.1948859022517333"><ele>340.0</ele><time>2026-03-30T16:40:24Z</time></trkpt><trkpt lat="42.132615475172315" lon="-1.1952366796924327"><ele>340.0</ele><time>2026-03-30T16:40:25Z</time></trkpt><trkpt lat="42.13261394605791" lon="-1.1955815923242874"><ele>340.0</ele><time>2026-03-30T16:40:26Z</time></trkpt><trkpt lat="42.13260564288088" lon="-1.1959305338529895"><ele>339.5</ele><time>2026-03-30T16:40:27Z</time></trkpt><trkpt lat="42.13260069748423" lon="-1.1963015465528022"><ele>339.0</ele><time>2026-03-30T16:40:28Z</time></trkpt><trkpt lat="42.132599794880264" lon="-1.1966651428859498"><ele>338.5</ele><time>2026-03-30T16:40:29Z</time></trkpt><trkpt lat="42.13260176859871" lon="-1.197023772708429"><ele>338.0</ele><time>2026-03-30T16:40:30Z</time></trkpt><trkpt lat="42.13260700696037" lon="-1.1973690808878112"><ele>338.0</ele><time>2026-03-30T16:40:31Z</time></trkpt><trkpt lat="42.1326158258369" lon="-1.1977000740297121"><ele>338.0</ele><time>2026-03-30T16:40:32Z</time></trkpt><trkpt lat="42.132621771927575" lon="-1.198028377870572"><ele>338.5</ele><time>2026-03-30T16:40:33Z</time></trkpt><trkpt lat="42.13261833429811" lon="-1.1983535829823695"><ele>339.0</ele><time>2026-03-30T16:40:34Z</time></trkpt><trkpt lat="42.13261570508983" lon="-1.1986911928721673"><ele>339.0</ele><time>2026-03-30T16:40:35Z</time></trkpt><trkpt lat="42.1326148241555" lon="-1.1990222563841568"><ele>339.0</ele><time>2026-03-30T16:40:36Z</time></trkpt><trkpt lat="42.13261025691267" lon="-1.199361071709471"><ele>339.0</ele><time>2026-03-30T16:40:37Z</time></trkpt><trkpt lat="42.13260792132351" lon="-1.199698083526874"><ele>339.0</ele><time>2026-03-30T16:40:38Z</time></trkpt><trkpt lat="42.13261161287518" lon="-1.2000345962712289"><ele>339.0</ele><time>2026-03-30T16:40:39Z</time></trkpt><trkpt lat="42.13261229394636" lon="-1.2003664061236394"><ele>339.0</ele><time>2026-03-30T16:40:40Z</time></trkpt><trkpt lat="42.13260955564695" lon="-1.2007056264429066"><ele>338.5</ele><time>2026-03-30T16:40:41Z</time></trkpt><trkpt lat="42.13261188878258" lon="-1.2010461511516588"><ele>338.0</ele><time>2026-03-30T16:40:42Z</time></trkpt><trkpt lat="42.13261250726065" lon="-1.201385554463683"><ele>338.0</ele><time>2026-03-30T16:40:43Z</time></trkpt><trkpt lat="42.13260940950287" lon="-1.2017281239545772"><ele>338.0</ele><time>2026-03-30T16:40:44Z</time></trkpt><trkpt lat="42.13260860565229" lon="-1.2020666039939418"><ele>339.0</ele><time>2026-03-30T16:40:45Z</time></trkpt><trkpt lat="42.132609631691096" lon="-1.2024060986813612"><ele>340.0</ele><time>2026-03-30T16:40:46Z</time></trkpt><trkpt lat="42.13260999737775" lon="-1.2027359600500447"><ele>340.0</ele><time>2026-03-30T16:40:47Z</time></trkpt><trkpt lat="42.13260940070592" lon="-1.203062465969193"><ele>340.0</ele><time>2026-03-30T16:40:48Z</time></trkpt><trkpt lat="42.132608362920294" lon="-1.2033888328423679"><ele>340.0</ele><time>2026-03-30T16:40:49Z</time></trkpt><trkpt lat="42.13260761771931" lon="-1.2037069205397632"><ele>340.0</ele><time>2026-03-30T16:40:50Z</time></trkpt><trkpt lat="42.132605787719555" lon="-1.2040275203912174"><ele>339.5</ele><time>2026-03-30T16:40:51Z</time></trkpt><trkpt lat="42.13260598724309" lon="-1.204346934939215"><ele>339.0</ele><time>2026-03-30T16:40:52Z</time></trkpt><trkpt lat="42.13260741569223" lon="-1.2046692995050365"><ele>339.5</ele><time>2026-03-30T16:40:53Z</time></trkpt><trkpt lat="42.132606828536844" lon="-1.2049940082559814"><ele>340.0</ele><time>2026-03-30T16:40:54Z</time></trkpt><trkpt lat="42.1326057621817" lon="-1.205316326441304"><ele>340.0</ele><time>2026-03-30T16:40:55Z</time></trkpt><trkpt lat="42.13260482313542" lon="-1.20564356457325"><ele>340.0</ele><time>2026-03-30T16:40:56Z</time></trkpt><trkpt lat="42.13260105201764" lon="-1.2059615902110707"><ele>340.0</ele><time>2026-03-30T16:40:57Z</time></trkpt><trkpt lat="42.13259768449721" lon="-1.2062801942015415"><ele>340.0</ele><time>2026-03-30T16:40:58Z</time></trkpt><trkpt lat="42.13259590502749" lon="-1.2065984647833314"><ele>339.0</ele><time>2026-03-30T16:40:59Z</time></trkpt><trkpt lat="42.13259729770493" lon="-1.206920291198009"><ele>338.0</ele><time>2026-03-30T16:41:00Z</time></trkpt><trkpt lat="42.13260043015311" lon="-1.2072490196000076"><ele>338.0</ele><time>2026-03-30T16:41:01Z</time></trkpt><trkpt lat="42.13259901713913" lon="-1.2075744587027577"><ele>338.0</ele><time>2026-03-30T16:41:02Z</time></trkpt><trkpt lat="42.1325912085405" lon="-1.2078947952214818"><ele>337.5</ele><time>2026-03-30T16:41:03Z</time></trkpt><trkpt lat="42.13258999765077" lon="-1.2082186780360609"><ele>337.0</ele><time>2026-03-30T16:41:04Z</time></trkpt><trkpt lat="42.13259124178752" lon="-1.2085357624602286"><ele>337.0</ele><time>2026-03-30T16:41:05Z</time></trkpt><trkpt lat="42.13259342393372" lon="-1.2088561268409206"><ele>337.0</ele><time>2026-03-30T16:41:06Z</time></trkpt><trkpt lat="42.13259502087205" lon="-1.2091719368435314"><ele>338.0</ele><time>2026-03-30T16:41:07Z</time></trkpt><trkpt lat="42.13259542592837" lon="-1.2094852746523737"><ele>339.0</ele><time>2026-03-30T16:41:08Z</time></trkpt><trkpt lat="42.13259418926187" lon="-1.2097950159558586"><ele>338.3333333333333</ele><time>2026-03-30T16:41:09Z</time></trkpt><trkpt lat="42.132592130544886" lon="-1.2100959723710012"><ele>337.66666666666663</ele><time>2026-03-30T16:41:10Z</time></trkpt><trkpt lat="42.13259028260608" lon="-1.2103960436824406"><ele>337.0</ele><time>2026-03-30T16:41:11Z</time></trkpt><trkpt lat="42.132588681091356" lon="-1.210702204197485"><ele>337.0</ele><time>2026-03-30T16:41:12Z</time></trkpt><trkpt lat="42.132588494378716" lon="-1.2110039587170447"><ele>337.0</ele><time>2026-03-30T16:41:13Z</time></trkpt><trkpt lat="42.13258736162143" lon="-1.2113148596915142"><ele>338.5</ele><time>2026-03-30T16:41:14Z</time></trkpt><trkpt lat="42.13258824383921" lon="-1.2116257911961477"><ele>340.0</ele><time>2026-03-30T16:41:15Z</time></trkpt><trkpt lat="42.132589060009906" lon="-1.2119387684956162"><ele>340.0</ele><time>2026-03-30T16:41:16Z</time></trkpt><trkpt lat="42.13258787599023" lon="-1.212255733263026"><ele>340.0</ele><time>2026-03-30T16:41:17Z</time></trkpt><trkpt lat="42.13258485025173" lon="-1.2125760392184162"><ele>340.0</ele><time>2026-03-30T16:41:18Z</time></trkpt><trkpt lat="42.132583357770855" lon="-1.21288003811258"><ele>340.0</ele><time>2026-03-30T16:41:19Z</time></trkpt><trkpt lat="42.13257997005023" lon="-1.2131895901869483"><ele>340.0</ele><time>2026-03-30T16:41:20Z</time></trkpt><trkpt lat="42.132572544657535" lon="-1.2134998826635273"><ele>340.0</ele><time>2026-03-30T16:41:21Z</time></trkpt><trkpt lat="42.13257283642769" lon="-1.2138111098005016"><ele>341.0</ele><time>2026-03-30T16:41:22Z</time></trkpt><trkpt lat="42.13257508352284" lon="-1.2141270274111877"><ele>342.0</ele><time>2026-03-30T16:41:23Z</time></trkpt><trkpt lat="42.13257197306918" lon="-1.21444347999433"><ele>342.0</ele><time>2026-03-30T16:41:24Z</time></trkpt><trkpt lat="42.132566544403524" lon="-1.2147607824160676"><ele>342.0</ele><time>2026-03-30T16:41:25Z</time></trkpt><trkpt lat="42.132558337564745" lon="-1.2150846774103474"><ele>341.0</ele><time>2026-03-30T16:41:26Z</time></trkpt><trkpt lat="42.13255713987101" lon="-1.2154021409308096"><ele>340.0</ele><time>2026-03-30T16:41:27Z</time></trkpt><trkpt lat="42.13255809614052" lon="-1.2157225074155253"><ele>339.5</ele><time>2026-03-30T16:41:28Z</time></trkpt><trkpt lat="42.13255933148928" lon="-1.2160380977689194"><ele>339.0</ele><time>2026-03-30T16:41:29Z</time></trkpt><trkpt lat="42.132556919239484" lon="-1.2163457053618347"><ele>340.0</ele><time>2026-03-30T16:41:30Z</time></trkpt><trkpt lat="42.132553714416424" lon="-1.2166536878252687"><ele>341.0</ele><time>2026-03-30T16:41:31Z</time></trkpt><trkpt lat="42.1325538925598" lon="-1.216957170395226"><ele>341.0</ele><time>2026-03-30T16:41:32Z</time></trkpt><trkpt lat="42.13255350590078" lon="-1.2172645963365245"><ele>341.0</ele><time>2026-03-30T16:41:33Z</time></trkpt><trkpt lat="42.13255243166887" lon="-1.21757341850401"><ele>340.5</ele><time>2026-03-30T16:41:34Z</time></trkpt><trkpt lat="42.13255062273093" lon="-1.2178866229468408"><ele>340.0</ele><time>2026-03-30T16:41:35Z</time></trkpt><trkpt lat="42.1325490308162" lon="-1.2182013909106022"><ele>341.0</ele><time>2026-03-30T16:41:36Z</time></trkpt><trkpt lat="42.132549424127234" lon="-1.2185197482240195"><ele>342.0</ele><time>2026-03-30T16:41:37Z</time></trkpt><trkpt lat="42.13255171340979" lon="-1.21884398476456"><ele>341.5</ele><time>2026-03-30T16:41:38Z</time></trkpt><trkpt lat="42.132550877598774" lon="-1.2191746987506678"><ele>341.0</ele><time>2026-03-30T16:41:39Z</time></trkpt><trkpt lat="42.13254912236021" lon="-1.2195062283374904"><ele>341.0</ele><time>2026-03-30T16:41:40Z</time></trkpt><trkpt lat="42.1325504772211" lon="-1.2198414078524153"><ele>341.0</ele><time>2026-03-30T16:41:41Z</time></trkpt><trkpt lat="42.13255084606515" lon="-1.2201785928151874"><ele>341.0</ele><time>2026-03-30T16:41:42Z</time></trkpt><trkpt lat="42.132550387306715" lon="-1.2205153245354816"><ele>341.0</ele><time>2026-03-30T16:41:43Z</time></trkpt><trkpt lat="42.13254965283874" lon="-1.2208517977492594"><ele>340.5</ele><time>2026-03-30T16:41:44Z</time></trkpt><trkpt lat="42.13254729892568" lon="-1.2211865388245908"><ele>340.0</ele><time>2026-03-30T16:41:45Z</time></trkpt><trkpt lat="42.1325491418696" lon="-1.2215074513114306"><ele>339.0</ele><time>2026-03-30T16:41:46Z</time></trkpt><trkpt lat="42.13254946818435" lon="-1.22182625273368"><ele>338.0</ele><time>2026-03-30T16:41:47Z</time></trkpt><trkpt lat="42.13254757016745" lon="-1.2221498241003235"><ele>338.5</ele><time>2026-03-30T16:41:48Z</time></trkpt><trkpt lat="42.13254708414118" lon="-1.2224683596673613"><ele>339.0</ele><time>2026-03-30T16:41:49Z</time></trkpt><trkpt lat="42.132545209389015" lon="-1.222794577573588"><ele>339.0</ele><time>2026-03-30T16:41:50Z</time></trkpt><trkpt lat="42.132543402189995" lon="-1.2231142858941975"><ele>339.0</ele><time>2026-03-30T16:41:51Z</time></trkpt><trkpt lat="42.132542287205915" lon="-1.2234366376126073"><ele>339.0</ele><time>2026-03-30T16:41:52Z</time></trkpt><trkpt lat="42.13254032896651" lon="-1.2237591531935197"><ele>339.0</ele><time>2026-03-30T16:41:53Z</time></trkpt><trkpt lat="42.13253920162498" lon="-1.2240859273187377"><ele>339.0</ele><time>2026-03-30T16:41:54Z</time></trkpt><trkpt lat="42.13254062164613" lon="-1.2244208672316632"><ele>339.0</ele><time>2026-03-30T16:41:55Z</time></trkpt><trkpt lat="42.132542480172184" lon="-1.2247575184597015"><ele>338.5</ele><time>2026-03-30T16:41:56Z</time></trkpt><trkpt lat="42.13254190163564" lon="-1.2250872091115272"><ele>338.0</ele><time>2026-03-30T16:41:57Z</time></trkpt><trkpt lat="42.13253972029053" lon="-1.225418098515556"><ele>337.5</ele><time>2026-03-30T16:41:58Z</time></trkpt><trkpt lat="42.132536993994556" lon="-1.2257462486217647"><ele>337.0</ele><time>2026-03-30T16:41:59Z</time></trkpt><trkpt lat="42.13253927912586" lon="-1.2260747200614197"><ele>337.0</ele><time>2026-03-30T16:42:00Z</time></trkpt><trkpt lat="42.132540690686625" lon="-1.2263991175241955"><ele>337.0</ele><time>2026-03-30T16:42:01Z</time></trkpt><trkpt lat="42.13253629349477" lon="-1.2267248355588543"><ele>336.5</ele><time>2026-03-30T16:42:02Z</time></trkpt><trkpt lat="42.13253548634406" lon="-1.2270498856565248"><ele>336.0</ele><time>2026-03-30T16:42:03Z</time></trkpt><trkpt lat="42.13253430365084" lon="-1.2273764239615355"><ele>336.0</ele><time>2026-03-30T16:42:04Z</time></trkpt><trkpt lat="42.132532442373765" lon="-1.227708448333161"><ele>336.0</ele><time>2026-03-30T16:42:05Z</time></trkpt><trkpt lat="42.1325301393163" lon="-1.2280073974731749"><ele>334.0</ele><time>2026-03-30T16:42:06Z</time></trkpt><trkpt lat="42.13252989587811" lon="-1.2283222780518603"><ele>332.0</ele><time>2026-03-30T16:42:07Z</time></trkpt><trkpt lat="42.13253226420394" lon="-1.2286461509534805"><ele>332.0</ele><time>2026-03-30T16:42:08Z</time></trkpt><trkpt lat="42.13253356868702" lon="-1.2289700002729567"><ele>332.0</ele><time>2026-03-30T16:42:09Z</time></trkpt><trkpt lat="42.132536572171766" lon="-1.2292979925063339"><ele>333.5</ele><time>2026-03-30T16:42:10Z</time></trkpt><trkpt lat="42.13253979337813" lon="-1.2296293876413935"><ele>335.0</ele><time>2026-03-30T16:42:11Z</time></trkpt><trkpt lat="42.132540895779556" lon="-1.2299506166802454"><ele>335.5</ele><time>2026-03-30T16:42:12Z</time></trkpt><trkpt lat="42.1325425385673" lon="-1.230269751332044"><ele>336.0</ele><time>2026-03-30T16:42:13Z</time></trkpt><trkpt lat="42.132540346686696" lon="-1.2305848020060692"><ele>337.5</ele><time>2026-03-30T16:42:14Z</time></trkpt><trkpt lat="42.13254047955587" lon="-1.230893128227452"><ele>339.0</ele><time>2026-03-30T16:42:15Z</time></trkpt><trkpt lat="42.13254166705108" lon="-1.2312001648117121"><ele>339.0</ele><time>2026-03-30T16:42:16Z</time></trkpt><trkpt lat="42.13254265600306" lon="-1.2315052677826808"><ele>339.0</ele><time>2026-03-30T16:42:17Z</time></trkpt><trkpt lat="42.132543883571785" lon="-1.2318045118842538"><ele>339.0</ele><time>2026-03-30T16:42:18Z</time></trkpt><trkpt lat="42.13254222924538" lon="-1.232099120621416"><ele>338.5</ele><time>2026-03-30T16:42:19Z</time></trkpt><trkpt lat="42.132540030775296" lon="-1.232399194530271"><ele>338.0</ele><time>2026-03-30T16:42:20Z</time></trkpt><trkpt lat="42.13253670196985" lon="-1.2327055173240429"><ele>338.0</ele><time>2026-03-30T16:42:21Z</time></trkpt><trkpt lat="42.13253215987322" lon="-1.2330311199737312"><ele>338.0</ele><time>2026-03-30T16:42:22Z</time></trkpt><trkpt lat="42.13253391311408" lon="-1.233358915302783"><ele>338.0</ele><time>2026-03-30T16:42:23Z</time></trkpt><trkpt lat="42.132538206154166" lon="-1.233677744385126"><ele>338.0</ele><time>2026-03-30T16:42:24Z</time></trkpt><trkpt lat="42.13253981408136" lon="-1.2339933457303618"><ele>338.5</ele><time>2026-03-30T16:42:25Z</time></trkpt><trkpt lat="42.132540005378345" lon="-1.2343031126006545"><ele>339.0</ele><time>2026-03-30T16:42:26Z</time></trkpt><trkpt lat="42.13253773729368" lon="-1.2346095279316922"><ele>338.3333333333333</ele><time>2026-03-30T16:42:27Z</time></trkpt><trkpt lat="42.13253648771397" lon="-1.234903162488427"><ele>337.66666666666663</ele><time>2026-03-30T16:42:28Z</time></trkpt><trkpt lat="42.132537276228256" lon="-1.235203074712549"><ele>337.0</ele><time>2026-03-30T16:42:29Z</time></trkpt><trkpt lat="42.13253258187648" lon="-1.2355027383214232"><ele>337.3333333333333</ele><time>2026-03-30T16:42:30Z</time></trkpt><trkpt lat="42.132527697263086" lon="-1.2357896612273187"><ele>337.6666666666667</ele><time>2026-03-30T16:42:31Z</time></trkpt><trkpt lat="42.13252692153587" lon="-1.2360763873189051"><ele>338.0</ele><time>2026-03-30T16:42:32Z</time></trkpt><trkpt lat="42.13252840872794" lon="-1.2363669064375482"><ele>337.6666666666667</ele><time>2026-03-30T16:42:33Z</time></trkpt><trkpt lat="42.13253074855926" lon="-1.2366610079837725"><ele>337.3333333333333</ele><time>2026-03-30T16:42:34Z</time></trkpt><trkpt lat="42.13252900844137" lon="-1.2369569683253248"><ele>337.0</ele><time>2026-03-30T16:42:35Z</time></trkpt><trkpt lat="42.132530446107516" lon="-1.2372564541206728"><ele>337.0</ele><time>2026-03-30T16:42:36Z</time></trkpt><trkpt lat="42.13253006277119" lon="-1.2375582392820341"><ele>337.0</ele><time>2026-03-30T16:42:37Z</time></trkpt><trkpt lat="42.13252864238451" lon="-1.2378685011346544"><ele>335.5</ele><time>2026-03-30T16:42:38Z</time></trkpt><trkpt lat="42.13252740098339" lon="-1.2381849319828824"><ele>334.0</ele><time>2026-03-30T16:42:39Z</time></trkpt><trkpt lat="42.13252958504339" lon="-1.238505076789329"><ele>334.0</ele><time>2026-03-30T16:42:40Z</time></trkpt><trkpt lat="42.13252123196469" lon="-1.2388284643562502"><ele>334.0</ele><time>2026-03-30T16:42:41Z</time></trkpt><trkpt lat="42.132507772360796" lon="-1.2391512938814622"><ele>333.5</ele><time>2026-03-30T16:42:42Z</time></trkpt><trkpt lat="42.1325183594731" lon="-1.2394858749035624"><ele>333.0</ele><time>2026-03-30T16:42:43Z</time></trkpt><trkpt lat="42.13251567609276" lon="-1.2398022405143334"><ele>333.0</ele><time>2026-03-30T16:42:44Z</time></trkpt><trkpt lat="42.13251537680808" lon="-1.2401136960332368"><ele>333.0</ele><time>2026-03-30T16:42:45Z</time></trkpt><trkpt lat="42.132518033698325" lon="-1.2404236231415728"><ele>331.0</ele><time>2026-03-30T16:42:46Z</time></trkpt><trkpt lat="42.13251822774216" lon="-1.2407305643043673"><ele>329.0</ele><time>2026-03-30T16:42:47Z</time></trkpt><trkpt lat="42.1325147708203" lon="-1.241036555725882"><ele>329.0</ele><time>2026-03-30T16:42:48Z</time></trkpt><trkpt lat="42.13251301017582" lon="-1.2413433965599963"><ele>329.0</ele><time>2026-03-30T16:42:49Z</time></trkpt><trkpt lat="42.13251584277337" lon="-1.241650091562425"><ele>329.0</ele><time>2026-03-30T16:42:50Z</time></trkpt><trkpt lat="42.132516478003666" lon="-1.2419702777931554"><ele>329.0</ele><time>2026-03-30T16:42:51Z</time></trkpt><trkpt lat="42.13251379626716" lon="-1.2422914421420306"><ele>328.5</ele><time>2026-03-30T16:42:52Z</time></trkpt><trkpt lat="42.132514282813716" lon="-1.2426044338790418"><ele>328.0</ele><time>2026-03-30T16:42:53Z</time></trkpt><trkpt lat="42.13251293024046" lon="-1.2429236938543544"><ele>326.5</ele><time>2026-03-30T16:42:54Z</time></trkpt><trkpt lat="42.132508435556055" lon="-1.2432541116022813"><ele>325.0</ele><time>2026-03-30T16:42:55Z</time></trkpt><trkpt lat="42.13250620531112" lon="-1.2435856707083117"><ele>325.0</ele><time>2026-03-30T16:42:56Z</time></trkpt><trkpt lat="42.13250728694643" lon="-1.243912141521181"><ele>325.0</ele><time>2026-03-30T16:42:57Z</time></trkpt><trkpt lat="42.132509440287556" lon="-1.2442384253900458"><ele>325.0</ele><time>2026-03-30T16:42:58Z</time></trkpt><trkpt lat="42.132509738815365" lon="-1.2445716062313976"><ele>325.0</ele><time>2026-03-30T16:42:59Z</time></trkpt><trkpt lat="42.13251099684725" lon="-1.2448976517665962"><ele>325.0</ele><time>2026-03-30T16:43:00Z</time></trkpt><trkpt lat="42.132509845046805" lon="-1.2452184530402985"><ele>325.0</ele><time>2026-03-30T16:43:01Z</time></trkpt><trkpt lat="42.13250604818427" lon="-1.2455376546969794"><ele>325.0</ele><time>2026-03-30T16:43:02Z</time></trkpt><trkpt lat="42.13250514853824" lon="-1.2458634289745225"><ele>325.0</ele><time>2026-03-30T16:43:03Z</time></trkpt><trkpt lat="42.13250590029236" lon="-1.246197058519937"><ele>325.5</ele><time>2026-03-30T16:43:04Z</time></trkpt><trkpt lat="42.132504445526905" lon="-1.2465392384085283"><ele>326.0</ele><time>2026-03-30T16:43:05Z</time></trkpt><trkpt lat="42.13250249963011" lon="-1.2468799863871622"><ele>326.0</ele><time>2026-03-30T16:43:06Z</time></trkpt><trkpt lat="42.13250068219219" lon="-1.2472198006189883"><ele>326.0</ele><time>2026-03-30T16:43:07Z</time></trkpt><trkpt lat="42.13249820043466" lon="-1.2475617340556626"><ele>326.5</ele><time>2026-03-30T16:43:08Z</time></trkpt><trkpt lat="42.1324962797245" lon="-1.2479040375552908"><ele>327.0</ele><time>2026-03-30T16:43:09Z</time></trkpt><trkpt lat="42.1324946015156" lon="-1.248243100290271"><ele>327.5</ele><time>2026-03-30T16:43:10Z</time></trkpt><trkpt lat="42.13249437758148" lon="-1.2485854943214518"><ele>328.0</ele><time>2026-03-30T16:43:11Z</time></trkpt><trkpt lat="42.13249508281433" lon="-1.2489222802322681"><ele>327.5</ele><time>2026-03-30T16:43:12Z</time></trkpt><trkpt lat="42.132497565909915" lon="-1.2492608849106293"><ele>327.0</ele><time>2026-03-30T16:43:13Z</time></trkpt><trkpt lat="42.1324961016792" lon="-1.2495965294357958"><ele>327.5</ele><time>2026-03-30T16:43:14Z</time></trkpt><trkpt lat="42.13249038097193" lon="-1.2499361344622344"><ele>328.0</ele><time>2026-03-30T16:43:15Z</time></trkpt><trkpt lat="42.13248835791915" lon="-1.2502766608074871"><ele>328.0</ele><time>2026-03-30T16:43:16Z</time></trkpt><trkpt lat="42.13249094043586" lon="-1.2506147977756623"><ele>328.0</ele><time>2026-03-30T16:43:17Z</time></trkpt><trkpt lat="42.132489000069775" lon="-1.250949933193287"><ele>328.5</ele><time>2026-03-30T16:43:18Z</time></trkpt><trkpt lat="42.132486184506256" lon="-1.2512869187309228"><ele>329.0</ele><time>2026-03-30T16:43:19Z</time></trkpt><trkpt lat="42.132485531112295" lon="-1.2516215423438877"><ele>329.0</ele><time>2026-03-30T16:43:20Z</time></trkpt><trkpt lat="42.132487893385054" lon="-1.2519563200827912"><ele>329.0</ele><time>2026-03-30T16:43:21Z</time></trkpt><trkpt lat="42.13249056435033" lon="-1.2522970013018948"><ele>328.5</ele><time>2026-03-30T16:43:22Z</time></trkpt><trkpt lat="42.132488815171016" lon="-1.2526348908327283"><ele>328.0</ele><time>2026-03-30T16:43:23Z</time></trkpt><trkpt lat="42.13248638943764" lon="-1.252970326855758"><ele>326.0</ele><time>2026-03-30T16:43:24Z</time></trkpt><trkpt lat="42.13248688722545" lon="-1.2533096007609508"><ele>324.0</ele><time>2026-03-30T16:43:25Z</time></trkpt><trkpt lat="42.13248439948213" lon="-1.2536441657106294"><ele>323.5</ele><time>2026-03-30T16:43:26Z</time></trkpt><trkpt lat="42.132477882176666" lon="-1.2539809954786314"><ele>323.0</ele><time>2026-03-30T16:43:27Z</time></trkpt><trkpt lat="42.132475320499864" lon="-1.2543158796774903"><ele>323.0</ele><time>2026-03-30T16:43:28Z</time></trkpt><trkpt lat="42.13247550575315" lon="-1.2546554187523802"><ele>323.0</ele><time>2026-03-30T16:43:29Z</time></trkpt><trkpt lat="42.132473600223165" lon="-1.254986665081036"><ele>322.5</ele><time>2026-03-30T16:43:30Z</time></trkpt><trkpt lat="42.13247291239613" lon="-1.2553227130009734"><ele>322.0</ele><time>2026-03-30T16:43:31Z</time></trkpt><trkpt lat="42.13247374262918" lon="-1.2556462192795546"><ele>322.0</ele><time>2026-03-30T16:43:32Z</time></trkpt><trkpt lat="42.13247344116419" lon="-1.2559729012747505"><ele>322.0</ele><time>2026-03-30T16:43:33Z</time></trkpt><trkpt lat="42.13246929537916" lon="-1.2562927965921502"><ele>321.5</ele><time>2026-03-30T16:43:34Z</time></trkpt><trkpt lat="42.13246474302922" lon="-1.2566109174013667"><ele>321.0</ele><time>2026-03-30T16:43:35Z</time></trkpt><trkpt lat="42.13246218587812" lon="-1.2569330595458423"><ele>321.0</ele><time>2026-03-30T16:43:36Z</time></trkpt><trkpt lat="42.13245796856887" lon="-1.257252406516692"><ele>321.0</ele><time>2026-03-30T16:43:37Z</time></trkpt><trkpt lat="42.132455481949336" lon="-1.2575735184575132"><ele>321.0</ele><time>2026-03-30T16:43:38Z</time></trkpt><trkpt lat="42.132458376794354" lon="-1.2578897215482294"><ele>321.0</ele><time>2026-03-30T16:43:39Z</time></trkpt><trkpt lat="42.13246027232123" lon="-1.2582086890845263"><ele>321.5</ele><time>2026-03-30T16:43:40Z</time></trkpt><trkpt lat="42.13245769395298" lon="-1.2585319619894533"><ele>322.0</ele><time>2026-03-30T16:43:41Z</time></trkpt><trkpt lat="42.13245754814101" lon="-1.2588576117622834"><ele>322.0</ele><time>2026-03-30T16:43:42Z</time></trkpt><trkpt lat="42.13245548695774" lon="-1.2591881346359743"><ele>322.0</ele><time>2026-03-30T16:43:43Z</time></trkpt><trkpt lat="42.132451370320986" lon="-1.2595207619040485"><ele>322.5</ele><time>2026-03-30T16:43:44Z</time></trkpt><trkpt lat="42.13245181306689" lon="-1.2598475404878378"><ele>323.0</ele><time>2026-03-30T16:43:45Z</time></trkpt><trkpt lat="42.13245356134539" lon="-1.2601760996949554"><ele>323.0</ele><time>2026-03-30T16:43:46Z</time></trkpt><trkpt lat="42.13245305064423" lon="-1.2605039793626358"><ele>323.0</ele><time>2026-03-30T16:43:47Z</time></trkpt><trkpt lat="42.132449365743554" lon="-1.26083317768021"><ele>322.5</ele><time>2026-03-30T16:43:48Z</time></trkpt><trkpt lat="42.1324482423665" lon="-1.2611499286906116"><ele>322.0</ele><time>2026-03-30T16:43:49Z</time></trkpt><trkpt lat="42.13244573375684" lon="-1.2614670852926584"><ele>322.0</ele><time>2026-03-30T16:43:50Z</time></trkpt><trkpt lat="42.13244441328861" lon="-1.261785824668863"><ele>322.0</ele><time>2026-03-30T16:43:51Z</time></trkpt><trkpt lat="42.13244542147766" lon="-1.2620993888949927"><ele>321.5</ele><time>2026-03-30T16:43:52Z</time></trkpt><trkpt lat="42.132446571427344" lon="-1.2624097209219487"><ele>321.0</ele><time>2026-03-30T16:43:53Z</time></trkpt><trkpt lat="42.13244733446733" lon="-1.262716950503343"><ele>321.0</ele><time>2026-03-30T16:43:54Z</time></trkpt><trkpt lat="42.1324481597422" lon="-1.263017885980907"><ele>321.0</ele><time>2026-03-30T16:43:55Z</time></trkpt><trkpt lat="42.13244515578998" lon="-1.2633245321679314"><ele>320.0</ele><time>2026-03-30T16:43:56Z</time></trkpt><trkpt lat="42.13244478946157" lon="-1.2636247466205233"><ele>319.0</ele><time>2026-03-30T16:43:57Z</time></trkpt><trkpt lat="42.13244371890938" lon="-1.263933946126068"><ele>320.0</ele><time>2026-03-30T16:43:58Z</time></trkpt><trkpt lat="42.13244206455349" lon="-1.2642398312953453"><ele>321.0</ele><time>2026-03-30T16:43:59Z</time></trkpt><trkpt lat="42.13244055573896" lon="-1.264544131687146"><ele>321.0</ele><time>2026-03-30T16:44:00Z</time></trkpt><trkpt lat="42.13243873910257" lon="-1.2648454981521"><ele>321.0</ele><time>2026-03-30T16:44:01Z</time></trkpt><trkpt lat="42.132438204733155" lon="-1.265145558151389"><ele>321.0</ele><time>2026-03-30T16:44:02Z</time></trkpt><trkpt lat="42.132438446159036" lon="-1.2654470966681175"><ele>321.0</ele><time>2026-03-30T16:44:03Z</time></trkpt><trkpt lat="42.132440358347445" lon="-1.2657511242817232"><ele>321.0</ele><time>2026-03-30T16:44:04Z</time></trkpt><trkpt lat="42.13244228676105" lon="-1.266060170550819"><ele>321.0</ele><time>2026-03-30T16:44:05Z</time></trkpt><trkpt lat="42.13244175006738" lon="-1.2663652766638718"><ele>321.0</ele><time>2026-03-30T16:44:06Z</time></trkpt><trkpt lat="42.13244023339434" lon="-1.2666726711686285"><ele>321.5</ele><time>2026-03-30T16:44:07Z</time></trkpt><trkpt lat="42.132437534068586" lon="-1.266983194772622"><ele>322.0</ele><time>2026-03-30T16:44:08Z</time></trkpt><trkpt lat="42.13243452593397" lon="-1.2672928019280547"><ele>323.0</ele><time>2026-03-30T16:44:09Z</time></trkpt><trkpt lat="42.13243329902202" lon="-1.2675996233557476"><ele>324.0</ele><time>2026-03-30T16:44:10Z</time></trkpt><trkpt lat="42.13243501196331" lon="-1.2679108738696858"><ele>325.5</ele><time>2026-03-30T16:44:11Z</time></trkpt><trkpt lat="42.13243490372915" lon="-1.2682239545939367"><ele>327.0</ele><time>2026-03-30T16:44:12Z</time></trkpt><trkpt lat="42.13243382741737" lon="-1.2685310909988734"><ele>327.0</ele><time>2026-03-30T16:44:13Z</time></trkpt><trkpt lat="42.13243269724153" lon="-1.268837593928315"><ele>327.0</ele><time>2026-03-30T16:44:14Z</time></trkpt><trkpt lat="42.13243015721813" lon="-1.2691445573212308"><ele>327.0</ele><time>2026-03-30T16:44:15Z</time></trkpt><trkpt lat="42.1324311636941" lon="-1.2694474960831061"><ele>327.0</ele><time>2026-03-30T16:44:16Z</time></trkpt><trkpt lat="42.132433251028694" lon="-1.2697439933108645"><ele>327.0</ele><time>2026-03-30T16:44:17Z</time></trkpt><trkpt lat="42.132433319611955" lon="-1.2700443425450245"><ele>327.0</ele><time>2026-03-30T16:44:18Z</time></trkpt><trkpt lat="42.13243098090309" lon="-1.2703434772438384"><ele>327.0</ele><time>2026-03-30T16:44:19Z</time></trkpt><trkpt lat="42.13242763969291" lon="-1.2706324963229592"><ele>327.0</ele><time>2026-03-30T16:44:20Z</time></trkpt><trkpt lat="42.132429044753216" lon="-1.270931299116654"><ele>327.3333333333333</ele><time>2026-03-30T16:44:21Z</time></trkpt><trkpt lat="42.1324310017731" lon="-1.2712248213629422"><ele>327.66666666666663</ele><time>2026-03-30T16:44:22Z</time></trkpt><trkpt lat="42.13242991788112" lon="-1.2715108695043256"><ele>328.0</ele><time>2026-03-30T16:44:23Z</time></trkpt><trkpt lat="42.1324306322312" lon="-1.2718078604209664"><ele>328.3333333333333</ele><time>2026-03-30T16:44:24Z</time></trkpt><trkpt lat="42.13243097213555" lon="-1.2720949308036564"><ele>328.6666666666667</ele><time>2026-03-30T16:44:25Z</time></trkpt><trkpt lat="42.13242931074568" lon="-1.2723702750712722"><ele>329.0</ele><time>2026-03-30T16:44:26Z</time></trkpt><trkpt lat="42.13242793325305" lon="-1.2726382377719483"><ele>330.6666666666667</ele><time>2026-03-30T16:44:27Z</time></trkpt><trkpt lat="42.132423438117335" lon="-1.272907977683888"><ele>332.3333333333333</ele><time>2026-03-30T16:44:28Z</time></trkpt><trkpt lat="42.13241961654754" lon="-1.2731914837472058"><ele>334.0</ele><time>2026-03-30T16:44:29Z</time></trkpt><trkpt lat="42.13241949624047" lon="-1.2734690791313512"><ele>334.0</ele><time>2026-03-30T16:44:30Z</time></trkpt><trkpt lat="42.13242105006889" lon="-1.2737374633322156"><ele>334.0</ele><time>2026-03-30T16:44:31Z</time></trkpt><trkpt lat="42.1324212114202" lon="-1.2740087909412168"><ele>334.0</ele><time>2026-03-30T16:44:32Z</time></trkpt><trkpt lat="42.13242165928606" lon="-1.274282888152029"><ele>334.3333333333333</ele><time>2026-03-30T16:44:33Z</time></trkpt><trkpt lat="42.132420922185304" lon="-1.2745499692404196"><ele>334.6666666666667</ele><time>2026-03-30T16:44:34Z</time></trkpt><trkpt lat="42.13242176974329" lon="-1.27481491230349"><ele>335.0</ele><time>2026-03-30T16:44:35Z</time></trkpt><trkpt lat="42.132419829082096" lon="-1.2750799208742083"><ele>335.0</ele><time>2026-03-30T16:44:36Z</time></trkpt><trkpt lat="42.13241635229372" lon="-1.2753423241753907"><ele>335.0</ele><time>2026-03-30T16:44:37Z</time></trkpt><trkpt lat="42.132417251864844" lon="-1.275604164135037"><ele>335.0</ele><time>2026-03-30T16:44:38Z</time></trkpt><trkpt lat="42.13241426472279" lon="-1.2758692675265817"><ele>334.0</ele><time>2026-03-30T16:44:39Z</time></trkpt><trkpt lat="42.13240609463775" lon="-1.276151824776285"><ele>333.0</ele><time>2026-03-30T16:44:40Z</time></trkpt><trkpt lat="42.13239486034579" lon="-1.2764391252696845"><ele>332.0</ele><time>2026-03-30T16:44:41Z</time></trkpt><trkpt lat="42.1323796041336" lon="-1.2767403326578544"><ele>329.5</ele><time>2026-03-30T16:44:42Z</time></trkpt><trkpt lat="42.13238862618725" lon="-1.2770543646396004"><ele>327.0</ele><time>2026-03-30T16:44:43Z</time></trkpt><trkpt lat="42.1323877736051" lon="-1.2773804294721602"><ele>326.0</ele><time>2026-03-30T16:44:44Z</time></trkpt><trkpt lat="42.13238687531438" lon="-1.277723975143414"><ele>325.0</ele><time>2026-03-30T16:44:45Z</time></trkpt><trkpt lat="42.132369824572265" lon="-1.278074618511877"><ele>323.5</ele><time>2026-03-30T16:44:46Z</time></trkpt><trkpt lat="42.132377627082725" lon="-1.2784241954737134"><ele>322.0</ele><time>2026-03-30T16:44:47Z</time></trkpt><trkpt lat="42.13238042266669" lon="-1.2788035696507145"><ele>322.5</ele><time>2026-03-30T16:44:48Z</time></trkpt><trkpt lat="42.13236668296151" lon="-1.2792238767133113"><ele>323.0</ele><time>2026-03-30T16:44:49Z</time></trkpt><trkpt lat="42.13236757085925" lon="-1.2796657871557062"><ele>324.0</ele><time>2026-03-30T16:44:50Z</time></trkpt><trkpt lat="42.13238369136975" lon="-1.2801220190842086"><ele>325.0</ele><time>2026-03-30T16:44:51Z</time></trkpt><trkpt lat="42.132402705131945" lon="-1.280534673179446"><ele>325.5</ele><time>2026-03-30T16:44:52Z</time></trkpt><trkpt lat="42.13240970233276" lon="-1.2809261551168234"><ele>326.0</ele><time>2026-03-30T16:44:53Z</time></trkpt><trkpt lat="42.132407777758694" lon="-1.2813212192168775"><ele>327.0</ele><time>2026-03-30T16:44:54Z</time></trkpt><trkpt lat="42.132404535345806" lon="-1.2817146375748838"><ele>328.0</ele><time>2026-03-30T16:44:55Z</time></trkpt><trkpt lat="42.132401067104176" lon="-1.282105815054465"><ele>327.5</ele><time>2026-03-30T16:44:56Z</time></trkpt><trkpt lat="42.13239950674564" lon="-1.2824799502686628"><ele>327.0</ele><time>2026-03-30T16:44:57Z</time></trkpt><trkpt lat="42.13239752862726" lon="-1.2828476367025017"><ele>326.0</ele><time>2026-03-30T16:44:58Z</time></trkpt><trkpt lat="42.13239541842724" lon="-1.2832034067629903"><ele>325.0</ele><time>2026-03-30T16:44:59Z</time></trkpt><trkpt lat="42.13239436881199" lon="-1.2835588428786238"><ele>325.0</ele><time>2026-03-30T16:45:00Z</time></trkpt><trkpt lat="42.1323927183996" lon="-1.2838979726651"><ele>325.0</ele><time>2026-03-30T16:45:01Z</time></trkpt><trkpt lat="42.1323911113824" lon="-1.2842367965745471"><ele>325.0</ele><time>2026-03-30T16:45:02Z</time></trkpt><trkpt lat="42.13238978345149" lon="-1.284563274360321"><ele>325.0</ele><time>2026-03-30T16:45:03Z</time></trkpt><trkpt lat="42.13239161060929" lon="-1.2848892855904508"><ele>324.5</ele><time>2026-03-30T16:45:04Z</time></trkpt><trkpt lat="42.13239236345645" lon="-1.2852113246985803"><ele>324.0</ele><time>2026-03-30T16:45:05Z</time></trkpt><trkpt lat="42.13238966318439" lon="-1.2855358679366928"><ele>324.5</ele><time>2026-03-30T16:45:06Z</time></trkpt><trkpt lat="42.13238721134238" lon="-1.2858733600756953"><ele>325.0</ele><time>2026-03-30T16:45:07Z</time></trkpt><trkpt lat="42.132383756577994" lon="-1.286210477646877"><ele>326.0</ele><time>2026-03-30T16:45:08Z</time></trkpt><trkpt lat="42.13237918706698" lon="-1.2865450405097847"><ele>327.0</ele><time>2026-03-30T16:45:09Z</time></trkpt><trkpt lat="42.132375091562125" lon="-1.2868836851341245"><ele>327.0</ele><time>2026-03-30T16:45:10Z</time></trkpt><trkpt lat="42.13237017932822" lon="-1.2872356586122744"><ele>327.0</ele><time>2026-03-30T16:45:11Z</time></trkpt><trkpt lat="42.13236687661698" lon="-1.2875907937659075"><ele>327.0</ele><time>2026-03-30T16:45:12Z</time></trkpt><trkpt lat="42.132364566047414" lon="-1.287955713631826"><ele>327.0</ele><time>2026-03-30T16:45:13Z</time></trkpt><trkpt lat="42.13235263794109" lon="-1.2883444965351092"><ele>326.0</ele><time>2026-03-30T16:45:14Z</time></trkpt><trkpt lat="42.13234147709022" lon="-1.288785953101871"><ele>325.0</ele><time>2026-03-30T16:45:15Z</time></trkpt><trkpt lat="42.13233988410396" lon="-1.2892486408308519"><ele>323.5</ele><time>2026-03-30T16:45:16Z</time></trkpt><trkpt lat="42.13234168739002" lon="-1.289720352086506"><ele>322.0</ele><time>2026-03-30T16:45:17Z</time></trkpt><trkpt lat="42.132345253538084" lon="-1.290210842227572"><ele>321.0</ele><time>2026-03-30T16:45:18Z</time></trkpt><trkpt lat="42.13236967468689" lon="-1.2907055383382102"><ele>320.0</ele><time>2026-03-30T16:45:19Z</time></trkpt><trkpt lat="42.132379983526135" lon="-1.291164570578352"><ele>319.5</ele><time>2026-03-30T16:45:20Z</time></trkpt><trkpt lat="42.13238266264493" lon="-1.2915924778038363"><ele>319.0</ele><time>2026-03-30T16:45:21Z</time></trkpt><trkpt lat="42.13237914198988" lon="-1.292003649842604"><ele>319.0</ele><time>2026-03-30T16:45:22Z</time></trkpt><trkpt lat="42.132378015327326" lon="-1.2923993904864155"><ele>319.0</ele><time>2026-03-30T16:45:23Z</time></trkpt><trkpt lat="42.132380301624835" lon="-1.2927781778000418"><ele>318.5</ele><time>2026-03-30T16:45:24Z</time></trkpt><trkpt lat="42.13238081966452" lon="-1.2931511932559865"><ele>318.0</ele><time>2026-03-30T16:45:25Z</time></trkpt><trkpt lat="42.13238270282868" lon="-1.2935087618093108"><ele>318.0</ele><time>2026-03-30T16:45:26Z</time></trkpt><trkpt lat="42.13238003494189" lon="-1.2938633898636849"><ele>318.0</ele><time>2026-03-30T16:45:27Z</time></trkpt><trkpt lat="42.132380822393706" lon="-1.2942156447818627"><ele>318.5</ele><time>2026-03-30T16:45:28Z</time></trkpt><trkpt lat="42.13238306226318" lon="-1.2945639841748628"><ele>319.0</ele><time>2026-03-30T16:45:29Z</time></trkpt><trkpt lat="42.132380808030106" lon="-1.2949104207775897"><ele>319.0</ele><time>2026-03-30T16:45:30Z</time></trkpt><trkpt lat="42.132376152708794" lon="-1.2952605091932416"><ele>319.0</ele><time>2026-03-30T16:45:31Z</time></trkpt><trkpt lat="42.13237524980248" lon="-1.2956216068696818"><ele>319.0</ele><time>2026-03-30T16:45:32Z</time></trkpt><trkpt lat="42.13237301527469" lon="-1.2959870555166835"><ele>319.0</ele><time>2026-03-30T16:45:33Z</time></trkpt><trkpt lat="42.132374799536095" lon="-1.2963505721336117"><ele>319.0</ele><time>2026-03-30T16:45:34Z</time></trkpt><trkpt lat="42.13237177075382" lon="-1.2967118819863337"><ele>319.0</ele><time>2026-03-30T16:45:35Z</time></trkpt><trkpt lat="42.13236776406842" lon="-1.297071507949084"><ele>319.0</ele><time>2026-03-30T16:45:36Z</time></trkpt><trkpt lat="42.132362853723066" lon="-1.2974337995976601"><ele>319.0</ele><time>2026-03-30T16:45:37Z</time></trkpt><trkpt lat="42.13236060174657" lon="-1.2977910895148712"><ele>319.5</ele><time>2026-03-30T16:45:38Z</time></trkpt><trkpt lat="42.1323532232223" lon="-1.2981447238472466"><ele>320.0</ele><time>2026-03-30T16:45:39Z</time></trkpt><trkpt lat="42.132338625592176" lon="-1.298503145384574"><ele>320.0</ele><time>2026-03-30T16:45:40Z</time></trkpt><trkpt lat="42.132335729439134" lon="-1.2988620283339969"><ele>320.0</ele><time>2026-03-30T16:45:41Z</time></trkpt><trkpt lat="42.13233482177983" lon="-1.299216505725579"><ele>320.5</ele><time>2026-03-30T16:45:42Z</time></trkpt><trkpt lat="42.13232606657077" lon="-1.2995717457381777"><ele>321.0</ele><time>2026-03-30T16:45:43Z</time></trkpt><trkpt lat="42.132317554686736" lon="-1.2999272938762583"><ele>321.0</ele><time>2026-03-30T16:45:44Z</time></trkpt><trkpt lat="42.13231373108227" lon="-1.300280946009844"><ele>321.0</ele><time>2026-03-30T16:45:45Z</time></trkpt><trkpt lat="42.132307065449545" lon="-1.3006246719409797"><ele>321.0</ele><time>2026-03-30T16:45:46Z</time></trkpt><trkpt lat="42.132295671621186" lon="-1.3009713283818467"><ele>321.0</ele><time>2026-03-30T16:45:47Z</time></trkpt><trkpt lat="42.13228952516781" lon="-1.301320656732109"><ele>321.0</ele><time>2026-03-30T16:45:48Z</time></trkpt><trkpt lat="42.13228724463505" lon="-1.3016698549991692"><ele>321.0</ele><time>2026-03-30T16:45:49Z</time></trkpt><trkpt lat="42.132279997421634" lon="-1.3020145509811993"><ele>321.5</ele><time>2026-03-30T16:45:50Z</time></trkpt><trkpt lat="42.13227104422783" lon="-1.3023589898639685"><ele>322.0</ele><time>2026-03-30T16:45:51Z</time></trkpt><trkpt lat="42.132265625862104" lon="-1.3027022570535403"><ele>322.0</ele><time>2026-03-30T16:45:52Z</time></trkpt><trkpt lat="42.13225991619906" lon="-1.3030407997158429"><ele>322.0</ele><time>2026-03-30T16:45:53Z</time></trkpt><trkpt lat="42.13225421800635" lon="-1.303366838463805"><ele>323.0</ele><time>2026-03-30T16:45:54Z</time></trkpt><trkpt lat="42.132246533310685" lon="-1.3036859256316815"><ele>324.0</ele><time>2026-03-30T16:45:55Z</time></trkpt><trkpt lat="42.132240373228676" lon="-1.3040107300687802"><ele>324.0</ele><time>2026-03-30T16:45:56Z</time></trkpt><trkpt lat="42.132236554753234" lon="-1.3043195035930322"><ele>324.0</ele><time>2026-03-30T16:45:57Z</time></trkpt><trkpt lat="42.13223400307404" lon="-1.3046354591608922"><ele>324.3333333333333</ele><time>2026-03-30T16:45:58Z</time></trkpt><trkpt lat="42.13223170241648" lon="-1.3049171598149338"><ele>324.66666666666663</ele><time>2026-03-30T16:45:59Z</time></trkpt><trkpt lat="42.132230744063044" lon="-1.3051801019237312"><ele>325.0</ele><time>2026-03-30T16:46:00Z</time></trkpt><trkpt lat="42.13223227878322" lon="-1.3054239308979019"><ele>325.0</ele><time>2026-03-30T16:46:01Z</time></trkpt><trkpt lat="42.132240074736266" lon="-1.3056592937295703"><ele>325.0</ele><time>2026-03-30T16:46:02Z</time></trkpt><trkpt lat="42.13226354798119" lon="-1.3058706155182738"><ele>325.0</ele><time>2026-03-30T16:46:03Z</time></trkpt><trkpt lat="42.13231731670018" lon="-1.306042156213241"><ele>325.0</ele><time>2026-03-30T16:46:04Z</time></trkpt><trkpt lat="42.13238787072606" lon="-1.3061896973973057"><ele>325.0</ele><time>2026-03-30T16:46:05Z</time></trkpt><trkpt lat="42.13244669820867" lon="-1.3063230146956593"><ele>325.0</ele><time>2026-03-30T16:46:06Z</time></trkpt><trkpt lat="42.13244155456916" lon="-1.3064857008595028"><ele>325.0</ele><time>2026-03-30T16:46:07Z</time></trkpt><trkpt lat="42.13236355864954" lon="-1.3066372871968441"><ele>325.0</ele><time>2026-03-30T16:46:08Z</time></trkpt><trkpt lat="42.132223817854126" lon="-1.3066860128009952"><ele>325.0</ele><time>2026-03-30T16:46:09Z</time></trkpt><trkpt lat="42.13212551800614" lon="-1.3067572989746374"><ele>325.0</ele><time>2026-03-30T16:46:10Z</time></trkpt><trkpt lat="42.13220655591247" lon="-1.3071321478326212"><ele>325.3333333333333</ele><time>2026-03-30T16:46:11Z</time></trkpt><trkpt lat="42.132212653711385" lon="-1.3073766887475096"><ele>325.6666666666667</ele><time>2026-03-30T16:46:12Z</time></trkpt><trkpt lat="42.13222822100614" lon="-1.3076597191939574"><ele>326.0</ele><time>2026-03-30T16:46:13Z</time></trkpt><trkpt lat="42.1322263419145" lon="-1.3079245609744041"><ele>326.6666666666667</ele><time>2026-03-30T16:46:14Z</time></trkpt><trkpt lat="42.132222580242114" lon="-1.3081819367382004"><ele>327.3333333333333</ele><time>2026-03-30T16:46:15Z</time></trkpt><trkpt lat="42.13221949838892" lon="-1.308440490098099"><ele>328.0</ele><time>2026-03-30T16:46:16Z</time></trkpt><trkpt lat="42.13222337644092" lon="-1.308696903389597"><ele>328.0</ele><time>2026-03-30T16:46:17Z</time></trkpt><trkpt lat="42.13222078390326" lon="-1.308951299210478"><ele>328.0</ele><time>2026-03-30T16:46:18Z</time></trkpt><trkpt lat="42.13221762087755" lon="-1.3092060431575614"><ele>328.0</ele><time>2026-03-30T16:46:19Z</time></trkpt><trkpt lat="42.132217411118845" lon="-1.3094570710095796"><ele>328.0</ele><time>2026-03-30T16:46:20Z</time></trkpt><trkpt lat="42.132218115692865" lon="-1.3097020686191618"><ele>328.0</ele><time>2026-03-30T16:46:21Z</time></trkpt><trkpt lat="42.13221944693306" lon="-1.3099378710573915"><ele>328.0</ele><time>2026-03-30T16:46:22Z</time></trkpt><trkpt lat="42.13221771781104" lon="-1.3101650870606862"><ele>328.0</ele><time>2026-03-30T16:46:23Z</time></trkpt><trkpt lat="42.132214037663154" lon="-1.3103695178055217"><ele>328.0</ele><time>2026-03-30T16:46:24Z</time></trkpt><trkpt lat="42.13221242717561" lon="-1.3105838487539014"><ele>328.0</ele><time>2026-03-30T16:46:25Z</time></trkpt><trkpt lat="42.13221545861137" lon="-1.3108072004788531"><ele>328.0</ele><time>2026-03-30T16:46:26Z</time></trkpt><trkpt lat="42.13221251349591" lon="-1.311035832036144"><ele>328.0</ele><time>2026-03-30T16:46:27Z</time></trkpt><trkpt lat="42.13221589443696" lon="-1.3112693361358863"><ele>328.0</ele><time>2026-03-30T16:46:28Z</time></trkpt><trkpt lat="42.13221583905208" lon="-1.3115011956032328"><ele>327.3333333333333</ele><time>2026-03-30T16:46:29Z</time></trkpt><trkpt lat="42.13221439542944" lon="-1.3117317704300877"><ele>326.6666666666667</ele><time>2026-03-30T16:46:30Z</time></trkpt><trkpt lat="42.13221586420385" lon="-1.3119595231114989"><ele>326.0</ele><time>2026-03-30T16:46:31Z</time></trkpt><trkpt lat="42.13221782274496" lon="-1.3121993092248783"><ele>326.33333333333337</ele><time>2026-03-30T16:46:32Z</time></trkpt><trkpt lat="42.13221556724541" lon="-1.3124317757768353"><ele>326.6666666666667</ele><time>2026-03-30T16:46:33Z</time></trkpt><trkpt lat="42.13221415804192" lon="-1.3126730578562877"><ele>327.0</ele><time>2026-03-30T16:46:34Z</time></trkpt><trkpt lat="42.13221239333804" lon="-1.3129176608158748"><ele>327.0</ele><time>2026-03-30T16:46:35Z</time></trkpt><trkpt lat="42.132209067977165" lon="-1.3131652156032663"><ele>327.0</ele><time>2026-03-30T16:46:36Z</time></trkpt><trkpt lat="42.13220800972605" lon="-1.3134083927220583"><ele>327.0</ele><time>2026-03-30T16:46:37Z</time></trkpt><trkpt lat="42.1322109759884" lon="-1.3136545490374665"><ele>327.0</ele><time>2026-03-30T16:46:38Z</time></trkpt><trkpt lat="42.13221271351228" lon="-1.313902263994504"><ele>327.0</ele><time>2026-03-30T16:46:39Z</time></trkpt><trkpt lat="42.132210296701906" lon="-1.3141522765236537"><ele>327.0</ele><time>2026-03-30T16:46:40Z</time></trkpt><trkpt lat="42.13221086501063" lon="-1.3144106356080507"><ele>327.0</ele><time>2026-03-30T16:46:41Z</time></trkpt><trkpt lat="42.132212195123635" lon="-1.3146748417651863"><ele>327.0</ele><time>2026-03-30T16:46:42Z</time></trkpt><trkpt lat="42.132212872594316" lon="-1.31495065092033"><ele>327.0</ele><time>2026-03-30T16:46:43Z</time></trkpt><trkpt lat="42.13221243454833" lon="-1.3152315471714582"><ele>327.3333333333333</ele><time>2026-03-30T16:46:44Z</time></trkpt><trkpt lat="42.13220851009677" lon="-1.3155247270102624"><ele>327.66666666666663</ele><time>2026-03-30T16:46:45Z</time></trkpt><trkpt lat="42.13220529380178" lon="-1.3158274502496308"><ele>328.0</ele><time>2026-03-30T16:46:46Z</time></trkpt><trkpt lat="42.13220352680276" lon="-1.3161290040304054"><ele>328.3333333333333</ele><time>2026-03-30T16:46:47Z</time></trkpt><trkpt lat="42.13220377298426" lon="-1.3164273336836876"><ele>328.6666666666667</ele><time>2026-03-30T16:46:48Z</time></trkpt><trkpt lat="42.1322068220297" lon="-1.3167224266474593"><ele>329.0</ele><time>2026-03-30T16:46:49Z</time></trkpt><trkpt lat="42.13221341225593" lon="-1.3170126346899185"><ele>329.33333333333337</ele><time>2026-03-30T16:46:50Z</time></trkpt><trkpt lat="42.13220885267379" lon="-1.3172981777114579"><ele>329.6666666666667</ele><time>2026-03-30T16:46:51Z</time></trkpt><trkpt lat="42.13220704919021" lon="-1.3175898767038008"><ele>330.0</ele><time>2026-03-30T16:46:52Z</time></trkpt><trkpt lat="42.13220971926594" lon="-1.3178993412514046"><ele>329.5</ele><time>2026-03-30T16:46:53Z</time></trkpt><trkpt lat="42.13220936790691" lon="-1.3182245282358809"><ele>329.0</ele><time>2026-03-30T16:46:54Z</time></trkpt><trkpt lat="42.1322063379401" lon="-1.3185437596772784"><ele>329.0</ele><time>2026-03-30T16:46:55Z</time></trkpt><trkpt lat="42.13220672233825" lon="-1.318860740662842"><ele>329.0</ele><time>2026-03-30T16:46:56Z</time></trkpt><trkpt lat="42.13220662121348" lon="-1.3191805256757032"><ele>329.0</ele><time>2026-03-30T16:46:57Z</time></trkpt><trkpt lat="42.13220551435417" lon="-1.3194983537020386"><ele>329.0</ele><time>2026-03-30T16:46:58Z</time></trkpt><trkpt lat="42.1322040967539" lon="-1.319815955989922"><ele>329.5</ele><time>2026-03-30T16:46:59Z</time></trkpt><trkpt lat="42.132202297401584" lon="-1.3201281788931014"><ele>330.0</ele><time>2026-03-30T16:47:00Z</time></trkpt><trkpt lat="42.132200578202514" lon="-1.3204427146185682"><ele>331.5</ele><time>2026-03-30T16:47:01Z</time></trkpt><trkpt lat="42.13219899080381" lon="-1.3207540510457823"><ele>333.0</ele><time>2026-03-30T16:47:02Z</time></trkpt><trkpt lat="42.13219869837336" lon="-1.3210660257693605"><ele>333.0</ele><time>2026-03-30T16:47:03Z</time></trkpt><trkpt lat="42.13219735272514" lon="-1.321375076589007"><ele>333.0</ele><time>2026-03-30T16:47:04Z</time></trkpt><trkpt lat="42.13219573765444" lon="-1.3216821386683613"><ele>334.0</ele><time>2026-03-30T16:47:05Z</time></trkpt><trkpt lat="42.132196877145724" lon="-1.3219897107793213"><ele>335.0</ele><time>2026-03-30T16:47:06Z</time></trkpt><trkpt lat="42.13219794016357" lon="-1.3223036407422804"><ele>335.0</ele><time>2026-03-30T16:47:07Z</time></trkpt><trkpt lat="42.13219981823218" lon="-1.3226194866957142"><ele>335.0</ele><time>2026-03-30T16:47:08Z</time></trkpt><trkpt lat="42.13219686340353" lon="-1.3229381269791274"><ele>336.5</ele><time>2026-03-30T16:47:09Z</time></trkpt><trkpt lat="42.13219389398397" lon="-1.32325039360423"><ele>338.0</ele><time>2026-03-30T16:47:10Z</time></trkpt><trkpt lat="42.132197194115136" lon="-1.3235736830843265"><ele>338.0</ele><time>2026-03-30T16:47:11Z</time></trkpt><trkpt lat="42.13219710742848" lon="-1.3238958282214754"><ele>338.0</ele><time>2026-03-30T16:47:12Z</time></trkpt><trkpt lat="42.1321936115924" lon="-1.3242213555744744"><ele>338.5</ele><time>2026-03-30T16:47:13Z</time></trkpt><trkpt lat="42.13219688619194" lon="-1.3245506105561073"><ele>339.0</ele><time>2026-03-30T16:47:14Z</time></trkpt><trkpt lat="42.13219459565206" lon="-1.3248762637033271"><ele>338.0</ele><time>2026-03-30T16:47:15Z</time></trkpt><trkpt lat="42.13217952963516" lon="-1.3251984349221342"><ele>337.0</ele><time>2026-03-30T16:47:16Z</time></trkpt><trkpt lat="42.13216088277321" lon="-1.3255193284259457"><ele>338.0</ele><time>2026-03-30T16:47:17Z</time></trkpt><trkpt lat="42.1321204064478" lon="-1.325838475578039"><ele>339.0</ele><time>2026-03-30T16:47:18Z</time></trkpt><trkpt lat="42.132067406603205" lon="-1.3261534329519336"><ele>340.0</ele><time>2026-03-30T16:47:19Z</time></trkpt><trkpt lat="42.1320025343675" lon="-1.3264636562103773"><ele>341.0</ele><time>2026-03-30T16:47:20Z</time></trkpt><trkpt lat="42.131930104390804" lon="-1.3267805031684188"><ele>341.0</ele><time>2026-03-30T16:47:21Z</time></trkpt><trkpt lat="42.131857375847545" lon="-1.327093478585585"><ele>341.0</ele><time>2026-03-30T16:47:22Z</time></trkpt><trkpt lat="42.13178024675044" lon="-1.3274028386688972"><ele>341.0</ele><time>2026-03-30T16:47:23Z</time></trkpt><trkpt lat="42.1316987610098" lon="-1.3277159928979656"><ele>341.0</ele><time>2026-03-30T16:47:24Z</time></trkpt><trkpt lat="42.131619248993175" lon="-1.32802449394268"><ele>343.0</ele><time>2026-03-30T16:47:25Z</time></trkpt><trkpt lat="42.131535352175675" lon="-1.3283308406749235"><ele>345.0</ele><time>2026-03-30T16:47:26Z</time></trkpt><trkpt lat="42.13145513507276" lon="-1.3286381454643006"><ele>342.5</ele><time>2026-03-30T16:47:27Z</time></trkpt><trkpt lat="42.131371812481035" lon="-1.3289602686579123"><ele>340.0</ele><time>2026-03-30T16:47:28Z</time></trkpt><trkpt lat="42.131288065749835" lon="-1.3292778955613438"><ele>340.0</ele><time>2026-03-30T16:47:29Z</time></trkpt><trkpt lat="42.13120904710049" lon="-1.3295962351793142"><ele>340.0</ele><time>2026-03-30T16:47:30Z</time></trkpt><trkpt lat="42.131129490021685" lon="-1.3299155765622026"><ele>340.0</ele><time>2026-03-30T16:47:31Z</time></trkpt><trkpt lat="42.13104737474316" lon="-1.3302363191601012"><ele>340.0</ele><time>2026-03-30T16:47:32Z</time></trkpt><trkpt lat="42.13096633474676" lon="-1.3305505929980346"><ele>340.0</ele><time>2026-03-30T16:47:33Z</time></trkpt><trkpt lat="42.130885707445316" lon="-1.3308618818475648"><ele>340.0</ele><time>2026-03-30T16:47:34Z</time></trkpt><trkpt lat="42.13080671375652" lon="-1.3311723582235455"><ele>338.0</ele><time>2026-03-30T16:47:35Z</time></trkpt><trkpt lat="42.13072753558229" lon="-1.3314814478969252"><ele>336.0</ele><time>2026-03-30T16:47:36Z</time></trkpt><trkpt lat="42.130647802918865" lon="-1.33179664330823"><ele>336.0</ele><time>2026-03-30T16:47:37Z</time></trkpt><trkpt lat="42.1305670009812" lon="-1.3321027948484565"><ele>336.0</ele><time>2026-03-30T16:47:38Z</time></trkpt><trkpt lat="42.13048777953173" lon="-1.3324179320589389"><ele>336.5</ele><time>2026-03-30T16:47:39Z</time></trkpt><trkpt lat="42.13040885140863" lon="-1.3327387447856236"><ele>337.0</ele><time>2026-03-30T16:47:40Z</time></trkpt><trkpt lat="42.130331427445796" lon="-1.3330642776825872"><ele>337.5</ele><time>2026-03-30T16:47:41Z</time></trkpt><trkpt lat="42.13027119733598" lon="-1.333387769233149"><ele>338.0</ele><time>2026-03-30T16:47:42Z</time></trkpt><trkpt lat="42.13023118817953" lon="-1.3337047206524242"><ele>338.0</ele><time>2026-03-30T16:47:43Z</time></trkpt><trkpt lat="42.13020718047901" lon="-1.3340283434038942"><ele>338.0</ele><time>2026-03-30T16:47:44Z</time></trkpt><trkpt lat="42.13019680193053" lon="-1.3343481718533394"><ele>338.0</ele><time>2026-03-30T16:47:45Z</time></trkpt><trkpt lat="42.130200960114024" lon="-1.3346622772248053"><ele>338.0</ele><time>2026-03-30T16:47:46Z</time></trkpt><trkpt lat="42.13020851523283" lon="-1.334977837825955"><ele>338.5</ele><time>2026-03-30T16:47:47Z</time></trkpt><trkpt lat="42.130219565615285" lon="-1.3353000606415482"><ele>339.0</ele><time>2026-03-30T16:47:48Z</time></trkpt><trkpt lat="42.13022966865944" lon="-1.335621198193582"><ele>341.5</ele><time>2026-03-30T16:47:49Z</time></trkpt><trkpt lat="42.130231123223346" lon="-1.3359489413706624"><ele>344.0</ele><time>2026-03-30T16:47:50Z</time></trkpt><trkpt lat="42.13021712697923" lon="-1.336279899428486"><ele>344.0</ele><time>2026-03-30T16:47:51Z</time></trkpt><trkpt lat="42.13018458130498" lon="-1.3366215095404541"><ele>344.0</ele><time>2026-03-30T16:47:52Z</time></trkpt><trkpt lat="42.1301368001199" lon="-1.3369551038413814"><ele>343.5</ele><time>2026-03-30T16:47:53Z</time></trkpt><trkpt lat="42.13006228179464" lon="-1.3372886444477283"><ele>343.0</ele><time>2026-03-30T16:47:54Z</time></trkpt><trkpt lat="42.12997870744357" lon="-1.3376234176309854"><ele>343.0</ele><time>2026-03-30T16:47:55Z</time></trkpt><trkpt lat="42.12989516328863" lon="-1.3379535514726226"><ele>343.0</ele><time>2026-03-30T16:47:56Z</time></trkpt><trkpt lat="42.1297999985813" lon="-1.3382835942459126"><ele>343.0</ele><time>2026-03-30T16:47:57Z</time></trkpt><trkpt lat="42.12971132507541" lon="-1.3386030505701738"><ele>343.0</ele><time>2026-03-30T16:47:58Z</time></trkpt><trkpt lat="42.129619722087405" lon="-1.3389196158797179"><ele>343.0</ele><time>2026-03-30T16:47:59Z</time></trkpt><trkpt lat="42.129527370184356" lon="-1.339247360414938"><ele>343.0</ele><time>2026-03-30T16:48:00Z</time></trkpt><trkpt lat="42.12943558858049" lon="-1.3395755873920987"><ele>343.0</ele><time>2026-03-30T16:48:01Z</time></trkpt><trkpt lat="42.12934217401003" lon="-1.3399009905346997"><ele>343.0</ele><time>2026-03-30T16:48:02Z</time></trkpt><trkpt lat="42.12925217656287" lon="-1.340222900244857"><ele>343.5</ele><time>2026-03-30T16:48:03Z</time></trkpt><trkpt lat="42.129164702132684" lon="-1.3405538383233924"><ele>344.0</ele><time>2026-03-30T16:48:04Z</time></trkpt><trkpt lat="42.12907327705767" lon="-1.340888612590262"><ele>344.5</ele><time>2026-03-30T16:48:05Z</time></trkpt><trkpt lat="42.128978468919954" lon="-1.3412324808156337"><ele>345.0</ele><time>2026-03-30T16:48:06Z</time></trkpt><trkpt lat="42.12888390411568" lon="-1.341577738278855"><ele>345.0</ele><time>2026-03-30T16:48:07Z</time></trkpt><trkpt lat="42.12879029338582" lon="-1.3419265594497438"><ele>345.0</ele><time>2026-03-30T16:48:08Z</time></trkpt><trkpt lat="42.12870237613131" lon="-1.3422233140494688"><ele>345.0</ele><time>2026-03-30T16:48:09Z</time></trkpt><trkpt lat="42.128611603728295" lon="-1.3425533304836097"><ele>345.0</ele><time>2026-03-30T16:48:10Z</time></trkpt><trkpt lat="42.128517324869954" lon="-1.34288295235221"><ele>344.5</ele><time>2026-03-30T16:48:11Z</time></trkpt><trkpt lat="42.128429227348626" lon="-1.3431962113278566"><ele>344.0</ele><time>2026-03-30T16:48:12Z</time></trkpt><trkpt lat="42.128336885435374" lon="-1.3435244005612852"><ele>344.0</ele><time>2026-03-30T16:48:13Z</time></trkpt><trkpt lat="42.12824586412763" lon="-1.343860297887421"><ele>344.0</ele><time>2026-03-30T16:48:14Z</time></trkpt><trkpt lat="42.12815075124143" lon="-1.344195914638283"><ele>344.5</ele><time>2026-03-30T16:48:15Z</time></trkpt><trkpt lat="42.12805089380807" lon="-1.3445361980345887"><ele>345.0</ele><time>2026-03-30T16:48:16Z</time></trkpt><trkpt lat="42.127965504407506" lon="-1.3448775062587361"><ele>345.5</ele><time>2026-03-30T16:48:17Z</time></trkpt><trkpt lat="42.127865828750366" lon="-1.3452250892220166"><ele>346.0</ele><time>2026-03-30T16:48:18Z</time></trkpt><trkpt lat="42.12777003386686" lon="-1.3455715027003696"><ele>347.0</ele><time>2026-03-30T16:48:19Z</time></trkpt><trkpt lat="42.12767330179411" lon="-1.345915579609373"><ele>348.0</ele><time>2026-03-30T16:48:20Z</time></trkpt><trkpt lat="42.12757680457913" lon="-1.3462576303811302"><ele>348.0</ele><time>2026-03-30T16:48:21Z</time></trkpt><trkpt lat="42.127481149113294" lon="-1.346594063097968"><ele>348.0</ele><time>2026-03-30T16:48:22Z</time></trkpt><trkpt lat="42.127380391197406" lon="-1.3469304712529424"><ele>347.5</ele><time>2026-03-30T16:48:23Z</time></trkpt><trkpt lat="42.12728655503771" lon="-1.3472624136709155"><ele>347.0</ele><time>2026-03-30T16:48:24Z</time></trkpt><trkpt lat="42.12719913978355" lon="-1.3475962784824154"><ele>347.0</ele><time>2026-03-30T16:48:25Z</time></trkpt><trkpt lat="42.12710814587016" lon="-1.3479243094028441"><ele>347.0</ele><time>2026-03-30T16:48:26Z</time></trkpt><trkpt lat="42.12701290053253" lon="-1.3482448714618953"><ele>347.5</ele><time>2026-03-30T16:48:27Z</time></trkpt><trkpt lat="42.12692091604457" lon="-1.3485616910464744"><ele>348.0</ele><time>2026-03-30T16:48:28Z</time></trkpt><trkpt lat="42.12683623249116" lon="-1.3488795755336895"><ele>349.0</ele><time>2026-03-30T16:48:29Z</time></trkpt><trkpt lat="42.12675047431036" lon="-1.349197047889387"><ele>350.0</ele><time>2026-03-30T16:48:30Z</time></trkpt><trkpt lat="42.12666456092881" lon="-1.349513871524312"><ele>350.0</ele><time>2026-03-30T16:48:31Z</time></trkpt><trkpt lat="42.126576013274715" lon="-1.3498307504216738"><ele>350.0</ele><time>2026-03-30T16:48:32Z</time></trkpt><trkpt lat="42.12648438064463" lon="-1.3501483371826746"><ele>350.0</ele><time>2026-03-30T16:48:33Z</time></trkpt><trkpt lat="42.12639891769129" lon="-1.3504672393442532"><ele>350.0</ele><time>2026-03-30T16:48:34Z</time></trkpt><trkpt lat="42.12630861455567" lon="-1.3507898563380183"><ele>350.5</ele><time>2026-03-30T16:48:35Z</time></trkpt><trkpt lat="42.12621386455388" lon="-1.3511176002346263"><ele>351.0</ele><time>2026-03-30T16:48:36Z</time></trkpt><trkpt lat="42.1261196721377" lon="-1.3514421072175182"><ele>352.5</ele><time>2026-03-30T16:48:37Z</time></trkpt><trkpt lat="42.12602382088075" lon="-1.3517713837753162"><ele>354.0</ele><time>2026-03-30T16:48:38Z</time></trkpt><trkpt lat="42.125934664685865" lon="-1.3521102742611797"><ele>355.0</ele><time>2026-03-30T16:48:39Z</time></trkpt><trkpt lat="42.12584369169637" lon="-1.3524541291211998"><ele>356.0</ele><time>2026-03-30T16:48:40Z</time></trkpt><trkpt lat="42.12574302523294" lon="-1.3527964912248394"><ele>356.0</ele><time>2026-03-30T16:48:41Z</time></trkpt><trkpt lat="42.125655472398805" lon="-1.3531396385263224"><ele>356.0</ele><time>2026-03-30T16:48:42Z</time></trkpt><trkpt lat="42.12556247147248" lon="-1.353476543021371"><ele>356.0</ele><time>2026-03-30T16:48:43Z</time></trkpt><trkpt lat="42.125461629458755" lon="-1.3538079222229853"><ele>356.0</ele><time>2026-03-30T16:48:44Z</time></trkpt><trkpt lat="42.125374697699016" lon="-1.354148455174963"><ele>356.5</ele><time>2026-03-30T16:48:45Z</time></trkpt><trkpt lat="42.125285617363666" lon="-1.3544946151312183"><ele>357.0</ele><time>2026-03-30T16:48:46Z</time></trkpt><trkpt lat="42.12518529313755" lon="-1.3548332045669407"><ele>358.0</ele><time>2026-03-30T16:48:47Z</time></trkpt><trkpt lat="42.12508771117515" lon="-1.355170059723264"><ele>359.0</ele><time>2026-03-30T16:48:48Z</time></trkpt><trkpt lat="42.12499444068391" lon="-1.3555024468991834"><ele>359.0</ele><time>2026-03-30T16:48:49Z</time></trkpt><trkpt lat="42.12490110419471" lon="-1.3558310463817111"><ele>359.0</ele><time>2026-03-30T16:48:50Z</time></trkpt><trkpt lat="42.124807813360384" lon="-1.3561589367094122"><ele>361.0</ele><time>2026-03-30T16:48:51Z</time></trkpt><trkpt lat="42.124715493842096" lon="-1.3564910490169355"><ele>363.0</ele><time>2026-03-30T16:48:52Z</time></trkpt><trkpt lat="42.12462390414276" lon="-1.356828346832403"><ele>363.0</ele><time>2026-03-30T16:48:53Z</time></trkpt><trkpt lat="42.12453047279165" lon="-1.3571746374154023"><ele>363.0</ele><time>2026-03-30T16:48:54Z</time></trkpt><trkpt lat="42.12443211583588" lon="-1.357525237276288"><ele>364.5</ele><time>2026-03-30T16:48:55Z</time></trkpt><trkpt lat="42.12433292492564" lon="-1.3578735115252947"><ele>366.0</ele><time>2026-03-30T16:48:56Z</time></trkpt><trkpt lat="42.12423407991908" lon="-1.3582239259392126"><ele>366.0</ele><time>2026-03-30T16:48:57Z</time></trkpt><trkpt lat="42.12413278826144" lon="-1.3585771529086155"><ele>366.0</ele><time>2026-03-30T16:48:58Z</time></trkpt><trkpt lat="42.124035760063364" lon="-1.3589284851362007"><ele>367.0</ele><time>2026-03-30T16:48:59Z</time></trkpt><trkpt lat="42.12393986949441" lon="-1.359280303287619"><ele>368.0</ele><time>2026-03-30T16:49:00Z</time></trkpt><trkpt lat="42.123843265830715" lon="-1.3596319598346707"><ele>368.5</ele><time>2026-03-30T16:49:01Z</time></trkpt><trkpt lat="42.12374500079919" lon="-1.3599813756618606"><ele>369.0</ele><time>2026-03-30T16:49:02Z</time></trkpt><trkpt lat="42.12364792477073" lon="-1.360320754028812"><ele>370.5</ele><time>2026-03-30T16:49:03Z</time></trkpt><trkpt lat="42.123548495393614" lon="-1.360656283929097"><ele>372.0</ele><time>2026-03-30T16:49:04Z</time></trkpt><trkpt lat="42.123449297057206" lon="-1.3609894067487334"><ele>372.0</ele><time>2026-03-30T16:49:05Z</time></trkpt><trkpt lat="42.123350091533" lon="-1.3613196213840693"><ele>372.0</ele><time>2026-03-30T16:49:06Z</time></trkpt><trkpt lat="42.123251842552875" lon="-1.3616487914344237"><ele>374.5</ele><time>2026-03-30T16:49:07Z</time></trkpt><trkpt lat="42.123160091807165" lon="-1.361975702387399"><ele>377.0</ele><time>2026-03-30T16:49:08Z</time></trkpt><trkpt lat="42.123070892626984" lon="-1.362296827562219"><ele>377.0</ele><time>2026-03-30T16:49:09Z</time></trkpt><trkpt lat="42.122988096311936" lon="-1.3626249890315103"><ele>377.0</ele><time>2026-03-30T16:49:10Z</time></trkpt><trkpt lat="42.12291288435128" lon="-1.3629662320701557"><ele>377.0</ele><time>2026-03-30T16:49:11Z</time></trkpt><trkpt lat="42.122849861971396" lon="-1.3633260178074633"><ele>377.0</ele><time>2026-03-30T16:49:12Z</time></trkpt><trkpt lat="42.12282065755406" lon="-1.3637233834133125"><ele>378.0</ele><time>2026-03-30T16:49:13Z</time></trkpt><trkpt lat="42.12277780668648" lon="-1.3640450547423424"><ele>379.0</ele><time>2026-03-30T16:49:14Z</time></trkpt><trkpt lat="42.122755028531955" lon="-1.3644240537247747"><ele>379.0</ele><time>2026-03-30T16:49:15Z</time></trkpt><trkpt lat="42.12273661434917" lon="-1.3648005750884453"><ele>379.0</ele><time>2026-03-30T16:49:16Z</time></trkpt><trkpt lat="42.12273003452296" lon="-1.36517273743416"><ele>382.5</ele><time>2026-03-30T16:49:17Z</time></trkpt><trkpt lat="42.12274305742223" lon="-1.365544730841821"><ele>386.0</ele><time>2026-03-30T16:49:18Z</time></trkpt><trkpt lat="42.12275988889468" lon="-1.3659132653920392"><ele>386.0</ele><time>2026-03-30T16:49:19Z</time></trkpt><trkpt lat="42.12279806212601" lon="-1.3662647811835085"><ele>386.0</ele><time>2026-03-30T16:49:20Z</time></trkpt><trkpt lat="42.12284646711751" lon="-1.3666080595050127"><ele>389.0</ele><time>2026-03-30T16:49:21Z</time></trkpt><trkpt lat="42.12287649703592" lon="-1.3669202241507086"><ele>392.0</ele><time>2026-03-30T16:49:22Z</time></trkpt><trkpt lat="42.12292050308949" lon="-1.3673223515600157"><ele>394.0</ele><time>2026-03-30T16:49:23Z</time></trkpt><trkpt lat="42.12297128503196" lon="-1.3676726226165177"><ele>396.0</ele><time>2026-03-30T16:49:24Z</time></trkpt><trkpt lat="42.122991200597184" lon="-1.368025782394075"><ele>398.0</ele><time>2026-03-30T16:49:25Z</time></trkpt><trkpt lat="42.12303148759951" lon="-1.3683715820599844"><ele>400.0</ele><time>2026-03-30T16:49:26Z</time></trkpt><trkpt lat="42.12304135653466" lon="-1.36872621190137"><ele>402.5</ele><time>2026-03-30T16:49:27Z</time></trkpt><trkpt lat="42.123054512540484" lon="-1.3690852060667513"><ele>405.0</ele><time>2026-03-30T16:49:28Z</time></trkpt><trkpt lat="42.12305640465123" lon="-1.369454541300421"><ele>408.5</ele><time>2026-03-30T16:49:29Z</time></trkpt><trkpt lat="42.123049477818654" lon="-1.3698223198472765"><ele>412.0</ele><time>2026-03-30T16:49:30Z</time></trkpt><trkpt lat="42.12301654137922" lon="-1.37018923475798"><ele>410.5</ele><time>2026-03-30T16:49:31Z</time></trkpt><trkpt lat="42.12298819888643" lon="-1.3705470865985117"><ele>409.0</ele><time>2026-03-30T16:49:32Z</time></trkpt><trkpt lat="42.12295257498504" lon="-1.37090038856522"><ele>409.0</ele><time>2026-03-30T16:49:33Z</time></trkpt><trkpt lat="42.12292385985704" lon="-1.3712664661573855"><ele>409.0</ele><time>2026-03-30T16:49:34Z</time></trkpt><trkpt lat="42.12285796785562" lon="-1.3716209354491729"><ele>406.0</ele><time>2026-03-30T16:49:35Z</time></trkpt><trkpt lat="42.12280951367802" lon="-1.3719840340768128"><ele>403.0</ele><time>2026-03-30T16:49:36Z</time></trkpt><trkpt lat="42.12271695547576" lon="-1.3723346287489142"><ele>401.5</ele><time>2026-03-30T16:49:37Z</time></trkpt><trkpt lat="42.12263526232361" lon="-1.3726890468466268"><ele>400.0</ele><time>2026-03-30T16:49:38Z</time></trkpt><trkpt lat="42.122554539463465" lon="-1.3730451107866113"><ele>400.0</ele><time>2026-03-30T16:49:39Z</time></trkpt><trkpt lat="42.12245605100885" lon="-1.3733969713040022"><ele>400.0</ele><time>2026-03-30T16:49:40Z</time></trkpt><trkpt lat="42.12233280469007" lon="-1.373740957265083"><ele>399.0</ele><time>2026-03-30T16:49:41Z</time></trkpt><trkpt lat="42.1222127392515" lon="-1.3740852397260022"><ele>398.0</ele><time>2026-03-30T16:49:42Z</time></trkpt><trkpt lat="42.12208425293137" lon="-1.374425006936601"><ele>396.0</ele><time>2026-03-30T16:49:43Z</time></trkpt><trkpt lat="42.12194411075902" lon="-1.3747611898115248"><ele>394.0</ele><time>2026-03-30T16:49:44Z</time></trkpt><trkpt lat="42.12179507074223" lon="-1.375093275069834"><ele>394.0</ele><time>2026-03-30T16:49:45Z</time></trkpt><trkpt lat="42.12163855433635" lon="-1.3754248501078197"><ele>394.0</ele><time>2026-03-30T16:49:46Z</time></trkpt><trkpt lat="42.121472332235946" lon="-1.3757357373203916"><ele>392.5</ele><time>2026-03-30T16:49:47Z</time></trkpt><trkpt lat="42.121305173615134" lon="-1.3760337094139814"><ele>391.0</ele><time>2026-03-30T16:49:48Z</time></trkpt><trkpt lat="42.121126056800506" lon="-1.3763312123772964"><ele>391.5</ele><time>2026-03-30T16:49:49Z</time></trkpt><trkpt lat="42.12093330248471" lon="-1.3766185246324842"><ele>392.0</ele><time>2026-03-30T16:49:50Z</time></trkpt><trkpt lat="42.12073939567683" lon="-1.3769000957128745"><ele>393.5</ele><time>2026-03-30T16:49:51Z</time></trkpt><trkpt lat="42.120540650164926" lon="-1.377168861499646"><ele>395.0</ele><time>2026-03-30T16:49:52Z</time></trkpt><trkpt lat="42.12033463036873" lon="-1.377428164565175"><ele>396.5</ele><time>2026-03-30T16:49:53Z</time></trkpt><trkpt lat="42.120134930314" lon="-1.3776875578761298"><ele>398.0</ele><time>2026-03-30T16:49:54Z</time></trkpt><trkpt lat="42.119933802893364" lon="-1.3779429260915692"><ele>406.0</ele><time>2026-03-30T16:49:55Z</time></trkpt><trkpt lat="42.11973092120885" lon="-1.3781903780065108"><ele>414.0</ele><time>2026-03-30T16:49:56Z</time></trkpt><trkpt lat="42.11953235381142" lon="-1.378439383834605"><ele>414.0</ele><time>2026-03-30T16:49:57Z</time></trkpt><trkpt lat="42.11933246515988" lon="-1.3786931181645112"><ele>414.0</ele><time>2026-03-30T16:49:58Z</time></trkpt><trkpt lat="42.11913339093109" lon="-1.3789500955240577"><ele>413.0</ele><time>2026-03-30T16:49:59Z</time></trkpt><trkpt lat="42.11893370228505" lon="-1.3792090322371588"><ele>412.0</ele><time>2026-03-30T16:50:00Z</time></trkpt><trkpt lat="42.11872551124735" lon="-1.379463739826791"><ele>411.5</ele><time>2026-03-30T16:50:01Z</time></trkpt><trkpt lat="42.11851736861085" lon="-1.3797200049961458"><ele>411.0</ele><time>2026-03-30T16:50:02Z</time></trkpt><trkpt lat="42.11831058257227" lon="-1.379988509224201"><ele>414.5</ele><time>2026-03-30T16:50:03Z</time></trkpt><trkpt lat="42.11810651177258" lon="-1.3802491020662846"><ele>418.0</ele><time>2026-03-30T16:50:04Z</time></trkpt><trkpt lat="42.11789878950699" lon="-1.3805068703325178"><ele>421.5</ele><time>2026-03-30T16:50:05Z</time></trkpt><trkpt lat="42.11769493178101" lon="-1.3807673516776529"><ele>425.0</ele><time>2026-03-30T16:50:06Z</time></trkpt><trkpt lat="42.11749276146832" lon="-1.381027977461532"><ele>427.5</ele><time>2026-03-30T16:50:07Z</time></trkpt><trkpt lat="42.1172877525891" lon="-1.38128382110074"><ele>430.0</ele><time>2026-03-30T16:50:08Z</time></trkpt><trkpt lat="42.11708238745003" lon="-1.3815384561980488"><ele>430.5</ele><time>2026-03-30T16:50:09Z</time></trkpt><trkpt lat="42.11687735939766" lon="-1.3817975049332154"><ele>431.0</ele><time>2026-03-30T16:50:10Z</time></trkpt><trkpt lat="42.116678547117324" lon="-1.3820515876766104"><ele>432.0</ele><time>2026-03-30T16:50:11Z</time></trkpt><trkpt lat="42.11648858729545" lon="-1.382286868402936"><ele>433.0</ele><time>2026-03-30T16:50:12Z</time></trkpt><trkpt lat="42.11630048479814" lon="-1.3825215400152802"><ele>433.0</ele><time>2026-03-30T16:50:13Z</time></trkpt><trkpt lat="42.11611713002643" lon="-1.3827613432588077"><ele>433.0</ele><time>2026-03-30T16:50:14Z</time></trkpt><trkpt lat="42.11593697129149" lon="-1.383012766789218"><ele>432.5</ele><time>2026-03-30T16:50:15Z</time></trkpt><trkpt lat="42.1157614304966" lon="-1.3832699733850913"><ele>432.0</ele><time>2026-03-30T16:50:16Z</time></trkpt><trkpt lat="42.11559011716371" lon="-1.3835371192558472"><ele>432.0</ele><time>2026-03-30T16:50:17Z</time></trkpt><trkpt lat="42.11542411212177" lon="-1.3838094858076064"><ele>432.0</ele><time>2026-03-30T16:50:18Z</time></trkpt><trkpt lat="42.11525370057197" lon="-1.3840848720844907"><ele>430.0</ele><time>2026-03-30T16:50:19Z</time></trkpt><trkpt lat="42.11508371063725" lon="-1.3843635833049543"><ele>428.0</ele><time>2026-03-30T16:50:20Z</time></trkpt><trkpt lat="42.11492595139857" lon="-1.3846459045400537"><ele>428.0</ele><time>2026-03-30T16:50:21Z</time></trkpt><trkpt lat="42.1147691558803" lon="-1.3849382005601285"><ele>428.0</ele><time>2026-03-30T16:50:22Z</time></trkpt><trkpt lat="42.11461758739249" lon="-1.3852282492825856"><ele>426.5</ele><time>2026-03-30T16:50:23Z</time></trkpt><trkpt lat="42.11447073990691" lon="-1.385515138692289"><ele>425.0</ele><time>2026-03-30T16:50:24Z</time></trkpt><trkpt lat="42.114333546642044" lon="-1.3858049542694708"><ele>425.0</ele><time>2026-03-30T16:50:25Z</time></trkpt><trkpt lat="42.114199612050726" lon="-1.3861056776842453"><ele>425.0</ele><time>2026-03-30T16:50:26Z</time></trkpt><trkpt lat="42.114065964455385" lon="-1.3864258451261957"><ele>423.0</ele><time>2026-03-30T16:50:27Z</time></trkpt><trkpt lat="42.11393888061055" lon="-1.3867508230017882"><ele>421.0</ele><time>2026-03-30T16:50:28Z</time></trkpt><trkpt lat="42.113810296297714" lon="-1.3870857500232774"><ele>421.5</ele><time>2026-03-30T16:50:29Z</time></trkpt><trkpt lat="42.11368423486465" lon="-1.387421085375721"><ele>422.0</ele><time>2026-03-30T16:50:30Z</time></trkpt><trkpt lat="42.11355397749595" lon="-1.387774277391572"><ele>422.0</ele><time>2026-03-30T16:50:31Z</time></trkpt><trkpt lat="42.11343904601912" lon="-1.388113001647805"><ele>422.0</ele><time>2026-03-30T16:50:32Z</time></trkpt><trkpt lat="42.11333184611206" lon="-1.3884676044191349"><ele>422.0</ele><time>2026-03-30T16:50:33Z</time></trkpt><trkpt lat="42.113224902813904" lon="-1.3888125880636057"><ele>422.0</ele><time>2026-03-30T16:50:34Z</time></trkpt><trkpt lat="42.11311878150432" lon="-1.3891503483643788"><ele>421.5</ele><time>2026-03-30T16:50:35Z</time></trkpt><trkpt lat="42.113019189202625" lon="-1.3894639508267645"><ele>421.0</ele><time>2026-03-30T16:50:36Z</time></trkpt><trkpt lat="42.112927482889496" lon="-1.3897536957763974"><ele>420.0</ele><time>2026-03-30T16:50:37Z</time></trkpt><trkpt lat="42.11284083040372" lon="-1.3900457347550534"><ele>419.0</ele><time>2026-03-30T16:50:38Z</time></trkpt><trkpt lat="42.112757772428374" lon="-1.390329577002149"><ele>419.5</ele><time>2026-03-30T16:50:39Z</time></trkpt><trkpt lat="42.112670320422225" lon="-1.3906065429217298"><ele>420.0</ele><time>2026-03-30T16:50:40Z</time></trkpt><trkpt lat="42.112574781957335" lon="-1.3908994848832308"><ele>420.0</ele><time>2026-03-30T16:50:41Z</time></trkpt><trkpt lat="42.1124867288688" lon="-1.39118378926575"><ele>420.0</ele><time>2026-03-30T16:50:42Z</time></trkpt><trkpt lat="42.112397139894334" lon="-1.3914834456179752"><ele>420.0</ele><time>2026-03-30T16:50:43Z</time></trkpt><trkpt lat="42.11230920822862" lon="-1.3917645395033904"><ele>420.0</ele><time>2026-03-30T16:50:44Z</time></trkpt><trkpt lat="42.11222785048928" lon="-1.3920195028519617"><ele>420.0</ele><time>2026-03-30T16:50:45Z</time></trkpt><trkpt lat="42.11215350584593" lon="-1.3922501215147258"><ele>420.0</ele><time>2026-03-30T16:50:46Z</time></trkpt><trkpt lat="42.11209011880289" lon="-1.392461799252218"><ele>420.0</ele><time>2026-03-30T16:50:47Z</time></trkpt><trkpt lat="42.11202551208685" lon="-1.3926657607399688"><ele>420.0</ele><time>2026-03-30T16:50:48Z</time></trkpt><trkpt lat="42.11196638865186" lon="-1.3928531822088464"><ele>419.5</ele><time>2026-03-30T16:50:49Z</time></trkpt><trkpt lat="42.111913011080595" lon="-1.3930362540686376"><ele>419.0</ele><time>2026-03-30T16:50:50Z</time></trkpt><trkpt lat="42.111861907745805" lon="-1.393199401933892"><ele>418.5</ele><time>2026-03-30T16:50:51Z</time></trkpt><trkpt lat="42.11181351439078" lon="-1.393348822440993"><ele>418.0</ele><time>2026-03-30T16:50:52Z</time></trkpt><trkpt lat="42.11177025747985" lon="-1.3934751458260182"><ele>418.0</ele><time>2026-03-30T16:50:53Z</time></trkpt><trkpt lat="42.11172244123358" lon="-1.3935776247700447"><ele>418.0</ele><time>2026-03-30T16:50:54Z</time></trkpt><trkpt lat="42.11170284178468" lon="-1.3936763310481186"><ele>418.0</ele><time>2026-03-30T16:50:56Z</time></trkpt><trkpt lat="42.11156991685159" lon="-1.3936126682712848"><ele>418.0</ele><time>2026-03-30T16:50:58Z</time></trkpt><trkpt lat="42.11148766653031" lon="-1.3935382258005833"><ele>418.0</ele><time>2026-03-30T16:51:58Z</time></trkpt><trkpt lat="42.11140355046432" lon="-1.3935022468562288"><ele>417.79999999999995</ele><time>2026-03-30T16:52:00Z</time></trkpt><trkpt lat="42.111311968809645" lon="-1.3934377545090413"><ele>417.6</ele><time>2026-03-30T16:52:02Z</time></trkpt><trkpt lat="42.111198453414616" lon="-1.3933912410219584"><ele>417.4</ele><time>2026-03-30T16:52:04Z</time></trkpt><trkpt lat="42.11112673317507" lon="-1.3933441150958183"><ele>417.20000000000005</ele><time>2026-03-30T16:52:05Z</time></trkpt><trkpt lat="42.11104479809213" lon="-1.3932902772960298"><ele>417.0</ele><time>2026-03-30T16:52:06Z</time></trkpt><trkpt lat="42.110950057558156" lon="-1.3932287178663278"><ele>417.0</ele><time>2026-03-30T16:52:07Z</time></trkpt><trkpt lat="42.11085042280418" lon="-1.393164619741127"><ele>417.0</ele><time>2026-03-30T16:52:08Z</time></trkpt><trkpt lat="42.1107406859269" lon="-1.3930940224442707"><ele>417.0</ele><time>2026-03-30T16:52:09Z</time></trkpt><trkpt lat="42.1106394130449" lon="-1.3930176965092063"><ele>417.0</ele><time>2026-03-30T16:52:10Z</time></trkpt><trkpt lat="42.11053438047748" lon="-1.392964711633982"><ele>416.20000000000005</ele><time>2026-03-30T16:52:11Z</time></trkpt><trkpt lat="42.11044492810485" lon="-1.3928844873480213"><ele>415.4</ele><time>2026-03-30T16:52:12Z</time></trkpt><trkpt lat="42.11036189323802" lon="-1.3928132185258508"><ele>414.6</ele><time>2026-03-30T16:52:13Z</time></trkpt><trkpt lat="42.11028364285129" lon="-1.3927383818624275"><ele>413.79999999999995</ele><time>2026-03-30T16:52:14Z</time></trkpt><trkpt lat="42.11019084668997" lon="-1.3926598098715064"><ele>413.0</ele><time>2026-03-30T16:52:15Z</time></trkpt><trkpt lat="42.110106585565056" lon="-1.3925336874112046"><ele>413.0</ele><time>2026-03-30T16:52:16Z</time></trkpt><trkpt lat="42.10999368398627" lon="-1.3923944297300208"><ele>413.0</ele><time>2026-03-30T16:52:17Z</time></trkpt><trkpt lat="42.109893102044666" lon="-1.392218261640118"><ele>413.0</ele><time>2026-03-30T16:52:18Z</time></trkpt><trkpt lat="42.10977963351126" lon="-1.3920758149812522"><ele>413.0</ele><time>2026-03-30T16:52:19Z</time></trkpt><trkpt lat="42.1096721934261" lon="-1.3919175360873255"><ele>413.0</ele><time>2026-03-30T16:52:20Z</time></trkpt><trkpt lat="42.10957087756488" lon="-1.3917354142388367"><ele>413.0</ele><time>2026-03-30T16:52:21Z</time></trkpt><trkpt lat="42.109461993091315" lon="-1.3915770820376407"><ele>413.0</ele><time>2026-03-30T16:52:22Z</time></trkpt><trkpt lat="42.109360991988424" lon="-1.391427637494494"><ele>413.0</ele><time>2026-03-30T16:52:23Z</time></trkpt><trkpt lat="42.10926766108461" lon="-1.3912887141513441"><ele>413.0</ele><time>2026-03-30T16:52:24Z</time></trkpt><trkpt lat="42.10916549270142" lon="-1.3911722729330824"><ele>413.0</ele><time>2026-03-30T16:52:25Z</time></trkpt><trkpt lat="42.10907434492077" lon="-1.3910391908383817"><ele>413.75</ele><time>2026-03-30T16:52:26Z</time></trkpt><trkpt lat="42.10898137643334" lon="-1.3909022185316176"><ele>414.5</ele><time>2026-03-30T16:52:27Z</time></trkpt><trkpt lat="42.10889578755459" lon="-1.3907723829173526"><ele>415.25</ele><time>2026-03-30T16:52:28Z</time></trkpt><trkpt lat="42.108825816904506" lon="-1.3906483485536654"><ele>416.0</ele><time>2026-03-30T16:52:29Z</time></trkpt><trkpt lat="42.108767880512886" lon="-1.390533198076623"><ele>416.0</ele><time>2026-03-30T16:52:30Z</time></trkpt><trkpt lat="42.10868407868559" lon="-1.390427271545278"><ele>416.0</ele><time>2026-03-30T16:52:31Z</time></trkpt><trkpt lat="42.108599619987096" lon="-1.39028463557408"><ele>416.0</ele><time>2026-03-30T16:52:32Z</time></trkpt><trkpt lat="42.10850728122882" lon="-1.3901339120235752"><ele>416.0</ele><time>2026-03-30T16:52:33Z</time></trkpt><trkpt lat="42.10838465556582" lon="-1.3899454191212506"><ele>416.0</ele><time>2026-03-30T16:52:34Z</time></trkpt><trkpt lat="42.1082637550527" lon="-1.389768903546744"><ele>416.0</ele><time>2026-03-30T16:52:35Z</time></trkpt><trkpt lat="42.10814208652077" lon="-1.3895912663914407"><ele>416.0</ele><time>2026-03-30T16:52:36Z</time></trkpt><trkpt lat="42.10802981270939" lon="-1.3894273445981453"><ele>416.75</ele><time>2026-03-30T16:52:37Z</time></trkpt><trkpt lat="42.10792166363885" lon="-1.3892694461998567"><ele>417.5</ele><time>2026-03-30T16:52:38Z</time></trkpt><trkpt lat="42.10782255428255" lon="-1.3891245944165278"><ele>418.25</ele><time>2026-03-30T16:52:39Z</time></trkpt><trkpt lat="42.10772920224346" lon="-1.3889881615342667"><ele>419.0</ele><time>2026-03-30T16:52:40Z</time></trkpt><trkpt lat="42.10763520100678" lon="-1.3888507799354375"><ele>419.0</ele><time>2026-03-30T16:52:41Z</time></trkpt><trkpt lat="42.10754149491503" lon="-1.3887138298611197"><ele>419.0</ele><time>2026-03-30T16:52:42Z</time></trkpt><trkpt lat="42.10745589707391" lon="-1.3885887295919537"><ele>419.0</ele><time>2026-03-30T16:52:43Z</time></trkpt><trkpt lat="42.10737469751571" lon="-1.3884700574269415"><ele>419.0</ele><time>2026-03-30T16:52:44Z</time></trkpt><trkpt lat="42.107285637231186" lon="-1.3883395982928193"><ele>419.0</ele><time>2026-03-30T16:52:45Z</time></trkpt><trkpt lat="42.10718847777859" lon="-1.3881968374947273"><ele>419.0</ele><time>2026-03-30T16:52:46Z</time></trkpt><trkpt lat="42.10708705615032" lon="-1.3880478139087544"><ele>419.0</ele><time>2026-03-30T16:52:47Z</time></trkpt><trkpt lat="42.1069874987472" lon="-1.3878792146935246"><ele>418.66666666666663</ele><time>2026-03-30T16:52:48Z</time></trkpt><trkpt lat="42.10688308711894" lon="-1.3877249121425967"><ele>418.33333333333337</ele><time>2026-03-30T16:52:49Z</time></trkpt><trkpt lat="42.106764879436454" lon="-1.3875634385779754"><ele>418.0</ele><time>2026-03-30T16:52:50Z</time></trkpt><trkpt lat="42.10665929626644" lon="-1.3873916889852589"><ele>418.0</ele><time>2026-03-30T16:52:51Z</time></trkpt><trkpt lat="42.106554034946726" lon="-1.3872525835119298"><ele>418.0</ele><time>2026-03-30T16:52:52Z</time></trkpt><trkpt lat="42.106450581777445" lon="-1.3870939605442627"><ele>418.0</ele><time>2026-03-30T16:52:53Z</time></trkpt><trkpt lat="42.10634068790609" lon="-1.386951693221356"><ele>418.0</ele><time>2026-03-30T16:52:54Z</time></trkpt><trkpt lat="42.10624593769399" lon="-1.3867822312013598"><ele>418.0</ele><time>2026-03-30T16:52:55Z</time></trkpt><trkpt lat="42.10617925927787" lon="-1.3865564350204413"><ele>418.0</ele><time>2026-03-30T16:52:56Z</time></trkpt><trkpt lat="42.10610468542073" lon="-1.386310777516212"><ele>419.0</ele><time>2026-03-30T16:52:57Z</time></trkpt><trkpt lat="42.1060247439062" lon="-1.3860386808184035"><ele>420.0</ele><time>2026-03-30T16:52:58Z</time></trkpt><trkpt lat="42.10594685942965" lon="-1.3857433487041564"><ele>421.0</ele><time>2026-03-30T16:52:59Z</time></trkpt><trkpt lat="42.105869394969694" lon="-1.3854638080879753"><ele>422.0</ele><time>2026-03-30T16:53:00Z</time></trkpt><trkpt lat="42.105801043854946" lon="-1.3852368860372906"><ele>423.0</ele><time>2026-03-30T16:53:01Z</time></trkpt><trkpt lat="42.1057325435394" lon="-1.3850301404297365"><ele>423.5</ele><time>2026-03-30T16:53:02Z</time></trkpt><trkpt lat="42.1056816934405" lon="-1.3848562322705933"><ele>424.0</ele><time>2026-03-30T16:53:03Z</time></trkpt><trkpt lat="42.10562770062104" lon="-1.3846728715569008"><ele>424.5</ele><time>2026-03-30T16:53:04Z</time></trkpt><trkpt lat="42.10562068341785" lon="-1.3844748801485107"><ele>425.0</ele><time>2026-03-30T16:53:05Z</time></trkpt><trkpt lat="42.10561400531439" lon="-1.3842603509366793"><ele>426.3333333333333</ele><time>2026-03-30T16:53:06Z</time></trkpt><trkpt lat="42.10561349949847" lon="-1.3840275273639493"><ele>427.66666666666663</ele><time>2026-03-30T16:53:07Z</time></trkpt><trkpt lat="42.10561634442396" lon="-1.3838088267639277"><ele>429.0</ele><time>2026-03-30T16:53:08Z</time></trkpt><trkpt lat="42.10561915404864" lon="-1.3835966937037032"><ele>430.25</ele><time>2026-03-30T16:53:09Z</time></trkpt><trkpt lat="42.10561296634189" lon="-1.3833972007499378"><ele>431.5</ele><time>2026-03-30T16:53:10Z</time></trkpt><trkpt lat="42.1056014149435" lon="-1.3831939045853214"><ele>432.75</ele><time>2026-03-30T16:53:11Z</time></trkpt><trkpt lat="42.105582993249975" lon="-1.3830167282101553"><ele>434.0</ele><time>2026-03-30T16:53:12Z</time></trkpt><trkpt lat="42.1055631325269" lon="-1.3828556583833658"><ele>434.6</ele><time>2026-03-30T16:53:13Z</time></trkpt><trkpt lat="42.10554905183634" lon="-1.3827056666030397"><ele>435.2</ele><time>2026-03-30T16:53:14Z</time></trkpt><trkpt lat="42.10552302291538" lon="-1.3825739924194527"><ele>435.80000000000007</ele><time>2026-03-30T16:53:15Z</time></trkpt><trkpt lat="42.10550617734082" lon="-1.382462833495559"><ele>436.40000000000003</ele><time>2026-03-30T16:53:16Z</time></trkpt><trkpt lat="42.1055103596984" lon="-1.3823402063729928"><ele>437.0</ele><time>2026-03-30T16:53:17Z</time></trkpt><trkpt lat="42.10550024109838" lon="-1.382244907756929"><ele>437.66666666666663</ele><time>2026-03-30T16:53:18Z</time></trkpt><trkpt lat="42.10552199886166" lon="-1.3821402073345297"><ele>438.3333333333333</ele><time>2026-03-30T16:53:19Z</time></trkpt><trkpt lat="42.105573810055084" lon="-1.3820561308924766"><ele>439.0</ele><time>2026-03-30T16:53:20Z</time></trkpt><trkpt lat="42.10564227752196" lon="-1.3820242440127333"><ele>439.66666666666663</ele><time>2026-03-30T16:53:21Z</time></trkpt><trkpt lat="42.10573419440482" lon="-1.3820367346990161"><ele>440.3333333333333</ele><time>2026-03-30T16:53:22Z</time></trkpt><trkpt lat="42.10583048428678" lon="-1.382059254911874"><ele>441.0</ele><time>2026-03-30T16:53:23Z</time></trkpt><trkpt lat="42.10594376944053" lon="-1.3820819261953148"><ele>441.5</ele><time>2026-03-30T16:53:24Z</time></trkpt><trkpt lat="42.10604651690397" lon="-1.3820139283404886"><ele>442.0</ele><time>2026-03-30T16:53:25Z</time></trkpt><trkpt lat="42.10617128593587" lon="-1.38194158697486"><ele>442.5</ele><time>2026-03-30T16:53:26Z</time></trkpt><trkpt lat="42.10626839294582" lon="-1.3818406729251096"><ele>443.0</ele><time>2026-03-30T16:53:27Z</time></trkpt><trkpt lat="42.106360463999636" lon="-1.3817317959318438"><ele>443.0</ele><time>2026-03-30T16:53:28Z</time></trkpt><trkpt lat="42.10645976628214" lon="-1.3816535316525054"><ele>443.0</ele><time>2026-03-30T16:53:29Z</time></trkpt><trkpt lat="42.106540340174796" lon="-1.3815625270247431"><ele>443.0</ele><time>2026-03-30T16:53:30Z</time></trkpt><trkpt lat="42.106628172348245" lon="-1.3814659877706121"><ele>443.0</ele><time>2026-03-30T16:53:31Z</time></trkpt><trkpt lat="42.10673147679643" lon="-1.381390183464818"><ele>446.0</ele><time>2026-03-30T16:53:32Z</time></trkpt><trkpt lat="42.10684400293322" lon="-1.3813125220739184"><ele>449.0</ele><time>2026-03-30T16:53:33Z</time></trkpt><trkpt lat="42.10692759469282" lon="-1.3811672456002757"><ele>452.0</ele><time>2026-03-30T16:53:34Z</time></trkpt><trkpt lat="42.107045483760615" lon="-1.3810405019196437"><ele>455.0</ele><time>2026-03-30T16:53:35Z</time></trkpt><trkpt lat="42.10718050189634" lon="-1.3809509474660948"><ele>455.0</ele><time>2026-03-30T16:53:36Z</time></trkpt><trkpt lat="42.107339188494635" lon="-1.3808669127185809"><ele>455.0</ele><time>2026-03-30T16:53:37Z</time></trkpt><trkpt lat="42.10752267070128" lon="-1.3807782898426906"><ele>455.0</ele><time>2026-03-30T16:53:38Z</time></trkpt><trkpt lat="42.1077018757015" lon="-1.3806760904487076"><ele>453.3333333333333</ele><time>2026-03-30T16:53:39Z</time></trkpt><trkpt lat="42.10786699299996" lon="-1.3805382000493955"><ele>451.66666666666663</ele><time>2026-03-30T16:53:40Z</time></trkpt><trkpt lat="42.108031154505426" lon="-1.3803969318198432"><ele>450.0</ele><time>2026-03-30T16:53:41Z</time></trkpt><trkpt lat="42.10817523379906" lon="-1.380232585810899"><ele>455.0</ele><time>2026-03-30T16:53:42Z</time></trkpt><trkpt lat="42.10833358186468" lon="-1.3801688814582398"><ele>460.0</ele><time>2026-03-30T16:53:43Z</time></trkpt><trkpt lat="42.1084916454828" lon="-1.3800988271561487"><ele>465.0</ele><time>2026-03-30T16:53:44Z</time></trkpt><trkpt lat="42.108631414196154" lon="-1.3800523147304782"><ele>465.0</ele><time>2026-03-30T16:53:45Z</time></trkpt><trkpt lat="42.108756538663705" lon="-1.3799963547440284"><ele>465.0</ele><time>2026-03-30T16:53:46Z</time></trkpt><trkpt lat="42.108867250062474" lon="-1.3799256704495313"><ele>465.0</ele><time>2026-03-30T16:53:47Z</time></trkpt><trkpt lat="42.10894681878217" lon="-1.379795815649803"><ele>465.0</ele><time>2026-03-30T16:53:48Z</time></trkpt><trkpt lat="42.1090175096351" lon="-1.3796454428822456"><ele>466.5</ele><time>2026-03-30T16:53:49Z</time></trkpt><trkpt lat="42.109092507647176" lon="-1.3794717354925068"><ele>468.0</ele><time>2026-03-30T16:53:50Z</time></trkpt><trkpt lat="42.10918378398063" lon="-1.3792995145676112"><ele>469.5</ele><time>2026-03-30T16:53:51Z</time></trkpt><trkpt lat="42.10928904341354" lon="-1.3791875261307822"><ele>471.0</ele><time>2026-03-30T16:53:52Z</time></trkpt><trkpt lat="42.109410324207865" lon="-1.3790836925012786"><ele>471.0</ele><time>2026-03-30T16:53:53Z</time></trkpt><trkpt lat="42.10954952539434" lon="-1.3790054637036586"><ele>471.0</ele><time>2026-03-30T16:53:54Z</time></trkpt><trkpt lat="42.10967220314079" lon="-1.3789440475043087"><ele>471.0</ele><time>2026-03-30T16:53:55Z</time></trkpt><trkpt lat="42.10978973505411" lon="-1.3789214389246955"><ele>471.0</ele><time>2026-03-30T16:53:56Z</time></trkpt><trkpt lat="42.10991765862782" lon="-1.3789294430777241"><ele>469.8</ele><time>2026-03-30T16:53:57Z</time></trkpt><trkpt lat="42.11002787414764" lon="-1.3789390935287302"><ele>468.6</ele><time>2026-03-30T16:53:58Z</time></trkpt><trkpt lat="42.11013233385683" lon="-1.3789077924343607"><ele>467.4</ele><time>2026-03-30T16:53:59Z</time></trkpt><trkpt lat="42.11022527550878" lon="-1.3788407316239952"><ele>466.2</ele><time>2026-03-30T16:54:00Z</time></trkpt><trkpt lat="42.11026925780534" lon="-1.378706652198684"><ele>465.0</ele><time>2026-03-30T16:54:01Z</time></trkpt><trkpt lat="42.11030972103923" lon="-1.3785741525995174"><ele>470.75</ele><time>2026-03-30T16:54:02Z</time></trkpt><trkpt lat="42.110379163459754" lon="-1.3784194507483907"><ele>476.5</ele><time>2026-03-30T16:54:03Z</time></trkpt><trkpt lat="42.11049360004356" lon="-1.3782783951702757"><ele>482.25</ele><time>2026-03-30T16:54:04Z</time></trkpt><trkpt lat="42.11060032737475" lon="-1.3781284511349625"><ele>488.0</ele><time>2026-03-30T16:54:05Z</time></trkpt><trkpt lat="42.110672816373025" lon="-1.3779549846811736"><ele>487.0</ele><time>2026-03-30T16:54:06Z</time></trkpt><trkpt lat="42.110733751934106" lon="-1.377762719440399"><ele>486.0</ele><time>2026-03-30T16:54:07Z</time></trkpt><trkpt lat="42.11080149142551" lon="-1.3775473755235725"><ele>485.0</ele><time>2026-03-30T16:54:08Z</time></trkpt><trkpt lat="42.11088089799174" lon="-1.3773344016814368"><ele>491.0</ele><time>2026-03-30T16:54:09Z</time></trkpt><trkpt lat="42.110975034644895" lon="-1.377132564426379"><ele>497.0</ele><time>2026-03-30T16:54:10Z</time></trkpt><trkpt lat="42.11109662583291" lon="-1.3769636909545178"><ele>503.0</ele><time>2026-03-30T16:54:11Z</time></trkpt><trkpt lat="42.1111976967621" lon="-1.3768044648203421"><ele>503.0</ele><time>2026-03-30T16:54:12Z</time></trkpt><trkpt lat="42.11125877086563" lon="-1.3766387424014397"><ele>503.0</ele><time>2026-03-30T16:54:13Z</time></trkpt><trkpt lat="42.111300863153154" lon="-1.3764762014883263"><ele>503.0</ele><time>2026-03-30T16:54:14Z</time></trkpt><trkpt lat="42.11132214578567" lon="-1.376290200929488"><ele>503.0</ele><time>2026-03-30T16:54:15Z</time></trkpt><trkpt lat="42.11136162608726" lon="-1.376091724791218"><ele>499.5</ele><time>2026-03-30T16:54:16Z</time></trkpt><trkpt lat="42.111427555420796" lon="-1.3759479044186878"><ele>496.0</ele><time>2026-03-30T16:54:17Z</time></trkpt><trkpt lat="42.11148668926768" lon="-1.3757993378310234"><ele>492.5</ele><time>2026-03-30T16:54:18Z</time></trkpt><trkpt lat="42.11158553269728" lon="-1.375697556396058"><ele>489.0</ele><time>2026-03-30T16:54:19Z</time></trkpt><trkpt lat="42.11167756942279" lon="-1.3756185082027468"><ele>489.0</ele><time>2026-03-30T16:54:20Z</time></trkpt><trkpt lat="42.111752968635216" lon="-1.375571450926272"><ele>489.0</ele><time>2026-03-30T16:54:21Z</time></trkpt><trkpt lat="42.11179991458489" lon="-1.3755118559446398"><ele>489.0</ele><time>2026-03-30T16:54:22Z</time></trkpt><trkpt lat="42.11186549780597" lon="-1.3754421809634465"><ele>489.0</ele><time>2026-03-30T16:54:24Z</time></trkpt><trkpt lat="42.11190176361959" lon="-1.3753412759085277"><ele>489.0</ele><time>2026-03-30T16:56:16Z</time></trkpt><trkpt lat="42.111941441188314" lon="-1.3751802755451616"><ele>489.0</ele><time>2026-03-30T16:56:18Z</time></trkpt><trkpt lat="42.11192993607761" lon="-1.3750595222365791"><ele>492.0</ele><time>2026-03-30T16:56:19Z</time></trkpt><trkpt lat="42.11190541155833" lon="-1.3749167831664837"><ele>495.0</ele><time>2026-03-30T16:56:20Z</time></trkpt><trkpt lat="42.11186256597298" lon="-1.3747481760209015"><ele>498.0</ele><time>2026-03-30T16:56:21Z</time></trkpt><trkpt lat="42.11181359997206" lon="-1.3745786925585837"><ele>501.0</ele><time>2026-03-30T16:56:22Z</time></trkpt><trkpt lat="42.111766547362535" lon="-1.374430013816085"><ele>501.0</ele><time>2026-03-30T16:56:23Z</time></trkpt><trkpt lat="42.11172689881684" lon="-1.3743087743091744"><ele>501.0</ele><time>2026-03-30T16:56:24Z</time></trkpt><trkpt lat="42.11166092059851" lon="-1.3741887386313507"><ele>501.0</ele><time>2026-03-30T16:56:25Z</time></trkpt><trkpt lat="42.11157501762472" lon="-1.3740647165111195"><ele>501.0</ele><time>2026-03-30T16:56:26Z</time></trkpt><trkpt lat="42.111477199283655" lon="-1.373947179534419"><ele>503.75</ele><time>2026-03-30T16:56:27Z</time></trkpt><trkpt lat="42.111364566155046" lon="-1.3738221412528475"><ele>506.5</ele><time>2026-03-30T16:56:28Z</time></trkpt><trkpt lat="42.111252411559285" lon="-1.3737048729163335"><ele>509.25</ele><time>2026-03-30T16:56:29Z</time></trkpt><trkpt lat="42.111117696690286" lon="-1.3735951904965051"><ele>512.0</ele><time>2026-03-30T16:56:30Z</time></trkpt><trkpt lat="42.11098438441875" lon="-1.3734788253790264"><ele>512.0</ele><time>2026-03-30T16:56:31Z</time></trkpt><trkpt lat="42.1108582600709" lon="-1.3733801070457643"><ele>512.0</ele><time>2026-03-30T16:56:32Z</time></trkpt><trkpt lat="42.11073143915133" lon="-1.3732988492951812"><ele>512.0</ele><time>2026-03-30T16:56:33Z</time></trkpt><trkpt lat="42.110597127435625" lon="-1.3732377546171972"><ele>512.0</ele><time>2026-03-30T16:56:34Z</time></trkpt><trkpt lat="42.11045385739002" lon="-1.3731856433719958"><ele>512.75</ele><time>2026-03-30T16:56:35Z</time></trkpt><trkpt lat="42.11031082520324" lon="-1.3731540650029532"><ele>513.5</ele><time>2026-03-30T16:56:36Z</time></trkpt><trkpt lat="42.11018216624787" lon="-1.3731378185951888"><ele>514.25</ele><time>2026-03-30T16:56:37Z</time></trkpt><trkpt lat="42.110060045654" lon="-1.373111753265577"><ele>515.0</ele><time>2026-03-30T16:56:38Z</time></trkpt><trkpt lat="42.10993889443824" lon="-1.3730201815931657"><ele>519.5</ele><time>2026-03-30T16:56:39Z</time></trkpt><trkpt lat="42.109838578732315" lon="-1.3728941522400981"><ele>524.0</ele><time>2026-03-30T16:56:40Z</time></trkpt><trkpt lat="42.10974209680648" lon="-1.3727385892430313"><ele>528.5</ele><time>2026-03-30T16:56:41Z</time></trkpt><trkpt lat="42.109635891605556" lon="-1.3725840371699944"><ele>533.0</ele><time>2026-03-30T16:56:42Z</time></trkpt><trkpt lat="42.109536148035815" lon="-1.372450861913125"><ele>533.0</ele><time>2026-03-30T16:56:43Z</time></trkpt><trkpt lat="42.10946404107616" lon="-1.3723010138128413"><ele>533.0</ele><time>2026-03-30T16:56:44Z</time></trkpt><trkpt lat="42.109425873327496" lon="-1.3721254639242084"><ele>533.0</ele><time>2026-03-30T16:56:45Z</time></trkpt><trkpt lat="42.10939166422296" lon="-1.3719737518194626"><ele>533.0</ele><time>2026-03-30T16:56:46Z</time></trkpt><trkpt lat="42.10934467362563" lon="-1.3718411734203138"><ele>533.5</ele><time>2026-03-30T16:56:47Z</time></trkpt><trkpt lat="42.109254525136315" lon="-1.371725227490567"><ele>534.0</ele><time>2026-03-30T16:56:48Z</time></trkpt><trkpt lat="42.10916833567529" lon="-1.3715788861868994"><ele>534.5</ele><time>2026-03-30T16:56:49Z</time></trkpt><trkpt lat="42.109104465994854" lon="-1.3714237762219097"><ele>535.0</ele><time>2026-03-30T16:56:50Z</time></trkpt><trkpt lat="42.109052251039714" lon="-1.3712790383148343"><ele>535.0</ele><time>2026-03-30T16:56:51Z</time></trkpt><trkpt lat="42.108956711042424" lon="-1.371194255749948"><ele>535.0</ele><time>2026-03-30T16:56:52Z</time></trkpt><trkpt lat="42.108856172538815" lon="-1.3711479426336128"><ele>535.0</ele><time>2026-03-30T16:56:53Z</time></trkpt><trkpt lat="42.10874306689335" lon="-1.371131046176477"><ele>535.0</ele><time>2026-03-30T16:56:54Z</time></trkpt><trkpt lat="42.10861405501837" lon="-1.3710996244493552"><ele>535.0</ele><time>2026-03-30T16:56:55Z</time></trkpt><trkpt lat="42.10850330007095" lon="-1.3710658513798828"><ele>535.0</ele><time>2026-03-30T16:56:56Z</time></trkpt><trkpt lat="42.10837780051179" lon="-1.3710059427032846"><ele>535.0</ele><time>2026-03-30T16:56:57Z</time></trkpt><trkpt lat="42.108260631021786" lon="-1.370909111883359"><ele>535.0</ele><time>2026-03-30T16:56:58Z</time></trkpt><trkpt lat="42.10816467878453" lon="-1.3707887183344025"><ele>534.5</ele><time>2026-03-30T16:56:59Z</time></trkpt><trkpt lat="42.10805499637271" lon="-1.3707529824865545"><ele>534.0</ele><time>2026-03-30T16:57:00Z</time></trkpt><trkpt lat="42.1079427307455" lon="-1.3707418203072466"><ele>533.5</ele><time>2026-03-30T16:57:01Z</time></trkpt><trkpt lat="42.10784632265552" lon="-1.3707992832597957"><ele>533.0</ele><time>2026-03-30T16:57:02Z</time></trkpt><trkpt lat="42.10771340275513" lon="-1.3708224844833463"><ele>533.0</ele><time>2026-03-30T16:57:03Z</time></trkpt><trkpt lat="42.10759510450394" lon="-1.3708214264271186"><ele>533.0</ele><time>2026-03-30T16:57:04Z</time></trkpt><trkpt lat="42.107476804741054" lon="-1.37075997773866"><ele>533.0</ele><time>2026-03-30T16:57:05Z</time></trkpt><trkpt lat="42.10736358905407" lon="-1.3706559632439346"><ele>533.0</ele><time>2026-03-30T16:57:06Z</time></trkpt><trkpt lat="42.1072485405432" lon="-1.370620783940862"><ele>534.6</ele><time>2026-03-30T16:57:07Z</time></trkpt><trkpt lat="42.10716088145848" lon="-1.3705814080600052"><ele>536.1999999999999</ele><time>2026-03-30T16:57:08Z</time></trkpt><trkpt lat="42.10707440976105" lon="-1.3706396880657705"><ele>537.8</ele><time>2026-03-30T16:57:09Z</time></trkpt><trkpt lat="42.107010055164785" lon="-1.3707233080064911"><ele>539.4</ele><time>2026-03-30T16:57:10Z</time></trkpt><trkpt lat="42.10692849254748" lon="-1.3708428428998605"><ele>541.0</ele><time>2026-03-30T16:57:11Z</time></trkpt><trkpt lat="42.10685428082679" lon="-1.370936547855862"><ele>541.0</ele><time>2026-03-30T16:57:12Z</time></trkpt><trkpt lat="42.106765663487714" lon="-1.3710209703053322"><ele>541.0</ele><time>2026-03-30T16:57:13Z</time></trkpt><trkpt lat="42.10666694641313" lon="-1.371073778365617"><ele>541.0</ele><time>2026-03-30T16:57:14Z</time></trkpt><trkpt lat="42.10653589690035" lon="-1.3710824878861494"><ele>541.0</ele><time>2026-03-30T16:57:15Z</time></trkpt><trkpt lat="42.106416500631944" lon="-1.3711572527746965"><ele>541.75</ele><time>2026-03-30T16:57:16Z</time></trkpt><trkpt lat="42.10629103890932" lon="-1.3711942976802027"><ele>542.5</ele><time>2026-03-30T16:57:17Z</time></trkpt><trkpt lat="42.10617932338635" lon="-1.3712140925894494"><ele>543.25</ele><time>2026-03-30T16:57:18Z</time></trkpt><trkpt lat="42.10606339605364" lon="-1.3711829932233253"><ele>544.0</ele><time>2026-03-30T16:57:19Z</time></trkpt><trkpt lat="42.105945103134054" lon="-1.3711473179113076"><ele>544.0</ele><time>2026-03-30T16:57:20Z</time></trkpt><trkpt lat="42.1058430109083" lon="-1.3711298198720805"><ele>544.0</ele><time>2026-03-30T16:57:21Z</time></trkpt><trkpt lat="42.105761319557516" lon="-1.371093972811091"><ele>544.0</ele><time>2026-03-30T16:57:22Z</time></trkpt><trkpt lat="42.1056860999552" lon="-1.3710559843361627"><ele>544.0</ele><time>2026-03-30T16:57:23Z</time></trkpt><trkpt lat="42.105616810671634" lon="-1.3710149338811264"><ele>544.0</ele><time>2026-03-30T16:57:24Z</time></trkpt><trkpt lat="42.105552754166965" lon="-1.3709695823931052"><ele>544.0</ele><time>2026-03-30T16:57:25Z</time></trkpt><trkpt lat="42.10548454619014" lon="-1.3709075506806383"><ele>542.8</ele><time>2026-03-30T16:57:26Z</time></trkpt><trkpt lat="42.10544191179372" lon="-1.3708053498008135"><ele>541.5999999999999</ele><time>2026-03-30T16:57:27Z</time></trkpt><trkpt lat="42.1053956001357" lon="-1.3707091319198"><ele>540.4</ele><time>2026-03-30T16:57:28Z</time></trkpt><trkpt lat="42.105365572003684" lon="-1.3705905663825637"><ele>539.1999999999999</ele><time>2026-03-30T16:57:29Z</time></trkpt><trkpt lat="42.10533866887831" lon="-1.370468564175131"><ele>538.0</ele><time>2026-03-30T16:57:30Z</time></trkpt><trkpt lat="42.10529238088071" lon="-1.3703568664816934"><ele>538.0</ele><time>2026-03-30T16:57:31Z</time></trkpt><trkpt lat="42.10524943443195" lon="-1.370242227145084"><ele>538.0</ele><time>2026-03-30T16:57:32Z</time></trkpt><trkpt lat="42.1052032854241" lon="-1.3701284367513689"><ele>538.0</ele><time>2026-03-30T16:57:33Z</time></trkpt><trkpt lat="42.105174001871404" lon="-1.3700139622752197"><ele>538.0</ele><time>2026-03-30T16:57:34Z</time></trkpt><trkpt lat="42.105142903683706" lon="-1.369935609105807"><ele>538.0</ele><time>2026-03-30T16:57:35Z</time></trkpt><trkpt lat="42.10511645994606" lon="-1.3697694859693592"><ele>537.6666666666667</ele><time>2026-03-30T16:57:37Z</time></trkpt><trkpt lat="42.1051590458143" lon="-1.3696842153813562"><ele>537.3333333333334</ele><time>2026-03-30T16:57:38Z</time></trkpt><trkpt lat="42.105196543942384" lon="-1.3696152335546148"><ele>537.0</ele><time>2026-03-30T16:57:39Z</time></trkpt><trkpt lat="42.105303441240245" lon="-1.3695029251761726"><ele>536.6666666666666</ele><time>2026-03-30T16:57:41Z</time></trkpt><trkpt lat="42.105360291821114" lon="-1.3694284750063759"><ele>536.3333333333333</ele><time>2026-03-30T16:57:42Z</time></trkpt><trkpt lat="42.105411422722305" lon="-1.3693404644016336"><ele>536.0</ele><time>2026-03-30T16:57:43Z</time></trkpt><trkpt lat="42.10545752711359" lon="-1.3692490802045258"><ele>536.0</ele><time>2026-03-30T16:57:44Z</time></trkpt><trkpt lat="42.10549101540289" lon="-1.36916451570198"><ele>536.0</ele><time>2026-03-30T16:57:45Z</time></trkpt><trkpt lat="42.105516576238976" lon="-1.369059839167073"><ele>536.0</ele><time>2026-03-30T16:57:46Z</time></trkpt><trkpt lat="42.10553049287521" lon="-1.368905755271211"><ele>536.0</ele><time>2026-03-30T16:57:48Z</time></trkpt><trkpt lat="42.10559956715618" lon="-1.368740403874961"><ele>536.0</ele><time>2026-03-30T16:57:50Z</time></trkpt><trkpt lat="42.10566641799019" lon="-1.3686388884513205"><ele>537.8</ele><time>2026-03-30T16:57:51Z</time></trkpt><trkpt lat="42.10574810614634" lon="-1.3685404325281165"><ele>539.6</ele><time>2026-03-30T16:57:52Z</time></trkpt><trkpt lat="42.10582705275678" lon="-1.3684731174928306"><ele>541.4</ele><time>2026-03-30T16:57:53Z</time></trkpt><trkpt lat="42.10591493079034" lon="-1.3684369365800548"><ele>543.2</ele><time>2026-03-30T16:57:54Z</time></trkpt><trkpt lat="42.10602421378494" lon="-1.3684186177971198"><ele>545.0</ele><time>2026-03-30T16:57:55Z</time></trkpt><trkpt lat="42.106151534027084" lon="-1.3683951258698168"><ele>545.0</ele><time>2026-03-30T16:57:56Z</time></trkpt><trkpt lat="42.10625741741397" lon="-1.3683446645531745"><ele>545.0</ele><time>2026-03-30T16:57:57Z</time></trkpt><trkpt lat="42.106349275662694" lon="-1.3682539885937117"><ele>545.0</ele><time>2026-03-30T16:57:58Z</time></trkpt><trkpt lat="42.10640159512372" lon="-1.3681096808380517"><ele>545.0</ele><time>2026-03-30T16:57:59Z</time></trkpt><trkpt lat="42.10645467060402" lon="-1.3679907437225862"><ele>545.0</ele><time>2026-03-30T16:58:00Z</time></trkpt><trkpt lat="42.10652113587808" lon="-1.3678137162261352"><ele>547.6666666666666</ele><time>2026-03-30T16:58:01Z</time></trkpt><trkpt lat="42.106591182115906" lon="-1.3676319697173105"><ele>550.3333333333334</ele><time>2026-03-30T16:58:02Z</time></trkpt><trkpt lat="42.10666304655243" lon="-1.3674239073803258"><ele>553.0</ele><time>2026-03-30T16:58:03Z</time></trkpt><trkpt lat="42.106728767602725" lon="-1.3671931259377517"><ele>553.3333333333334</ele><time>2026-03-30T16:58:04Z</time></trkpt><trkpt lat="42.106803846303904" lon="-1.366928196190437"><ele>553.6666666666666</ele><time>2026-03-30T16:58:05Z</time></trkpt><trkpt lat="42.10688618731217" lon="-1.366693451018584"><ele>554.0</ele><time>2026-03-30T16:58:06Z</time></trkpt><trkpt lat="42.10695448664667" lon="-1.3664774592181752"><ele>553.6666666666666</ele><time>2026-03-30T16:58:07Z</time></trkpt><trkpt lat="42.10701689806236" lon="-1.3662758469118421"><ele>553.3333333333334</ele><time>2026-03-30T16:58:08Z</time></trkpt><trkpt lat="42.10707935213623" lon="-1.3660952805290094"><ele>553.0</ele><time>2026-03-30T16:58:09Z</time></trkpt><trkpt lat="42.107142840773356" lon="-1.3658949003800964"><ele>553.0</ele><time>2026-03-30T16:58:10Z</time></trkpt><trkpt lat="42.10719355684341" lon="-1.3657175185912465"><ele>553.0</ele><time>2026-03-30T16:58:11Z</time></trkpt><trkpt lat="42.10724761008532" lon="-1.3655645471422209"><ele>553.0</ele><time>2026-03-30T16:58:12Z</time></trkpt><trkpt lat="42.10728842144558" lon="-1.3654485839909145"><ele>553.0</ele><time>2026-03-30T16:58:13Z</time></trkpt><trkpt lat="42.107314979379616" lon="-1.3653530906265443"><ele>553.0</ele><time>2026-03-30T16:58:14Z</time></trkpt><trkpt lat="42.10731931142449" lon="-1.3652232093375434"><ele>553.0</ele><time>2026-03-30T16:58:16Z</time></trkpt><trkpt lat="42.1072796402328" lon="-1.3651323137698261"><ele>553.0</ele><time>2026-03-30T16:59:25Z</time></trkpt><trkpt lat="42.10721279223961" lon="-1.3651253530548104"><ele>553.0</ele><time>2026-03-30T16:59:42Z</time></trkpt><trkpt lat="42.10714082930209" lon="-1.3650759755444395"><ele>553.0</ele><time>2026-03-30T16:59:44Z</time></trkpt><trkpt lat="42.10708063388664" lon="-1.3650139408413753"><ele>553.0</ele><time>2026-03-30T16:59:46Z</time></trkpt><trkpt lat="42.107006258715685" lon="-1.3649836388445749"><ele>553.0</ele><time>2026-03-30T16:59:48Z</time></trkpt><trkpt lat="42.106947343648734" lon="-1.3649425323619633"><ele>553.0</ele><time>2026-03-30T16:59:49Z</time></trkpt><trkpt lat="42.10686250386503" lon="-1.3648819742970102"><ele>553.0</ele><time>2026-03-30T16:59:50Z</time></trkpt><trkpt lat="42.106766578293076" lon="-1.3648134896962258"><ele>553.0</ele><time>2026-03-30T16:59:51Z</time></trkpt><trkpt lat="42.10665872399731" lon="-1.3647358603261388"><ele>553.0</ele><time>2026-03-30T16:59:52Z</time></trkpt><trkpt lat="42.10654313410453" lon="-1.3646526631906253"><ele>553.0</ele><time>2026-03-30T16:59:53Z</time></trkpt><trkpt lat="42.10642560516945" lon="-1.3645648276019144"><ele>552.75</ele><time>2026-03-30T16:59:54Z</time></trkpt><trkpt lat="42.1063052137186" lon="-1.3644743811286677"><ele>552.5</ele><time>2026-03-30T16:59:55Z</time></trkpt><trkpt lat="42.10618821637406" lon="-1.3643633531260209"><ele>552.25</ele><time>2026-03-30T16:59:56Z</time></trkpt><trkpt lat="42.10605581129461" lon="-1.3642606049090524"><ele>552.0</ele><time>2026-03-30T16:59:57Z</time></trkpt><trkpt lat="42.105914478971435" lon="-1.3641546151997181"><ele>552.0</ele><time>2026-03-30T16:59:58Z</time></trkpt><trkpt lat="42.105768875976864" lon="-1.3640458335763899"><ele>552.0</ele><time>2026-03-30T16:59:59Z</time></trkpt><trkpt lat="42.105627849896585" lon="-1.3639389976771528"><ele>552.0</ele><time>2026-03-30T17:00:00Z</time></trkpt><trkpt lat="42.105493458259176" lon="-1.3638345708484991"><ele>552.0</ele><time>2026-03-30T17:00:01Z</time></trkpt><trkpt lat="42.105356242500356" lon="-1.3637537665288204"><ele>552.0</ele><time>2026-03-30T17:00:02Z</time></trkpt><trkpt lat="42.10520628789361" lon="-1.363606817234998"><ele>552.0</ele><time>2026-03-30T17:00:03Z</time></trkpt><trkpt lat="42.10506179075428" lon="-1.3634713647110348"><ele>552.0</ele><time>2026-03-30T17:00:04Z</time></trkpt><trkpt lat="42.104920011467414" lon="-1.3633316663385808"><ele>552.0</ele><time>2026-03-30T17:00:05Z</time></trkpt><trkpt lat="42.104782075529464" lon="-1.3631838743481035"><ele>552.0</ele><time>2026-03-30T17:00:06Z</time></trkpt><trkpt lat="42.10464970857744" lon="-1.3630315678406575"><ele>550.6666666666666</ele><time>2026-03-30T17:00:07Z</time></trkpt><trkpt lat="42.10451750394076" lon="-1.3628836057396072"><ele>549.3333333333333</ele><time>2026-03-30T17:00:08Z</time></trkpt><trkpt lat="42.10438931712458" lon="-1.3627468872587092"><ele>548.0</ele><time>2026-03-30T17:00:09Z</time></trkpt><trkpt lat="42.10428667159941" lon="-1.3626127695383898"><ele>548.0</ele><time>2026-03-30T17:00:10Z</time></trkpt><trkpt lat="42.10418172668222" lon="-1.3625282327172243"><ele>548.0</ele><time>2026-03-30T17:00:11Z</time></trkpt><trkpt lat="42.10408899586585" lon="-1.362462906710964"><ele>548.0</ele><time>2026-03-30T17:00:12Z</time></trkpt><trkpt lat="42.1039785836962" lon="-1.362414330169712"><ele>548.0</ele><time>2026-03-30T17:00:13Z</time></trkpt><trkpt lat="42.10386294840051" lon="-1.3624050556586504"><ele>547.6666666666666</ele><time>2026-03-30T17:00:14Z</time></trkpt><trkpt lat="42.10370956198814" lon="-1.362391575402286"><ele>547.3333333333334</ele><time>2026-03-30T17:00:15Z</time></trkpt><trkpt lat="42.103527749008755" lon="-1.3623810350020515"><ele>547.0</ele><time>2026-03-30T17:00:16Z</time></trkpt><trkpt lat="42.10333043099717" lon="-1.3623346561524385"><ele>546.6666666666667</ele><time>2026-03-30T17:00:17Z</time></trkpt><trkpt lat="42.103137874373466" lon="-1.3623206239739196"><ele>546.3333333333334</ele><time>2026-03-30T17:00:18Z</time></trkpt><trkpt lat="42.102954723225565" lon="-1.362320730121843"><ele>546.0</ele><time>2026-03-30T17:00:19Z</time></trkpt><trkpt lat="42.102783681236765" lon="-1.362304775819265"><ele>546.0</ele><time>2026-03-30T17:00:20Z</time></trkpt><trkpt lat="42.1026207971509" lon="-1.362289582470273"><ele>546.0</ele><time>2026-03-30T17:00:21Z</time></trkpt><trkpt lat="42.102461927354256" lon="-1.3622507475830896"><ele>546.0</ele><time>2026-03-30T17:00:22Z</time></trkpt><trkpt lat="42.10230805853662" lon="-1.3622311219564716"><ele>545.6666666666666</ele><time>2026-03-30T17:00:23Z</time></trkpt><trkpt lat="42.1021547668998" lon="-1.362232492429122"><ele>545.3333333333333</ele><time>2026-03-30T17:00:24Z</time></trkpt><trkpt lat="42.102002012504386" lon="-1.3622158543585408"><ele>545.0</ele><time>2026-03-30T17:00:25Z</time></trkpt><trkpt lat="42.101847438784255" lon="-1.3622020439415656"><ele>544.3333333333333</ele><time>2026-03-30T17:00:26Z</time></trkpt><trkpt lat="42.101692899555644" lon="-1.3621914301898206"><ele>543.6666666666666</ele><time>2026-03-30T17:00:27Z</time></trkpt><trkpt lat="42.101536502575875" lon="-1.362180361502302"><ele>543.0</ele><time>2026-03-30T17:00:28Z</time></trkpt><trkpt lat="42.101380231381675" lon="-1.3621544963177656"><ele>543.0</ele><time>2026-03-30T17:00:29Z</time></trkpt><trkpt lat="42.10123451752153" lon="-1.362125786057048"><ele>543.0</ele><time>2026-03-30T17:00:30Z</time></trkpt><trkpt lat="42.1010771910335" lon="-1.3621263738021478"><ele>543.0</ele><time>2026-03-30T17:00:31Z</time></trkpt><trkpt lat="42.10092320786863" lon="-1.362108204929679"><ele>543.0</ele><time>2026-03-30T17:00:32Z</time></trkpt><trkpt lat="42.100771587322015" lon="-1.3620910746342734"><ele>543.0</ele><time>2026-03-30T17:00:33Z</time></trkpt><trkpt lat="42.100625608485124" lon="-1.3620744950440038"><ele>543.0</ele><time>2026-03-30T17:00:34Z</time></trkpt><trkpt lat="42.1004738177429" lon="-1.362036559520627"><ele>542.0</ele><time>2026-03-30T17:00:35Z</time></trkpt><trkpt lat="42.100312010779064" lon="-1.3620179678405357"><ele>541.0</ele><time>2026-03-30T17:00:36Z</time></trkpt><trkpt lat="42.100154979626545" lon="-1.362010207628009"><ele>540.0</ele><time>2026-03-30T17:00:37Z</time></trkpt><trkpt lat="42.09998308152337" lon="-1.361994005280361"><ele>539.6666666666666</ele><time>2026-03-30T17:00:38Z</time></trkpt><trkpt lat="42.099822254136576" lon="-1.3619944982231902"><ele>539.3333333333333</ele><time>2026-03-30T17:00:39Z</time></trkpt><trkpt lat="42.09967424449433" lon="-1.3619794824781284"><ele>539.0</ele><time>2026-03-30T17:00:40Z</time></trkpt><trkpt lat="42.09952705148771" lon="-1.361963656463707"><ele>539.0</ele><time>2026-03-30T17:00:41Z</time></trkpt><trkpt lat="42.09937338665354" lon="-1.361947134610558"><ele>539.0</ele><time>2026-03-30T17:00:42Z</time></trkpt><trkpt lat="42.09920884915459" lon="-1.3619316298142492"><ele>539.0</ele><time>2026-03-30T17:00:43Z</time></trkpt><trkpt lat="42.09905822925998" lon="-1.3619177554243802"><ele>539.5</ele><time>2026-03-30T17:00:44Z</time></trkpt><trkpt lat="42.09891183361739" lon="-1.3619049454553382"><ele>540.0</ele><time>2026-03-30T17:00:45Z</time></trkpt><trkpt lat="42.09876148768187" lon="-1.3618966499038387"><ele>540.5</ele><time>2026-03-30T17:00:46Z</time></trkpt><trkpt lat="42.09861094723272" lon="-1.3618913485238608"><ele>541.0</ele><time>2026-03-30T17:00:47Z</time></trkpt><trkpt lat="42.09844080570681" lon="-1.3618621610587607"><ele>541.0</ele><time>2026-03-30T17:00:48Z</time></trkpt><trkpt lat="42.098294745290566" lon="-1.3618380174464622"><ele>541.0</ele><time>2026-03-30T17:00:49Z</time></trkpt><trkpt lat="42.09814973664723" lon="-1.3618181334627837"><ele>541.0</ele><time>2026-03-30T17:00:50Z</time></trkpt><trkpt lat="42.098011272586696" lon="-1.361782010510094"><ele>541.0</ele><time>2026-03-30T17:00:51Z</time></trkpt><trkpt lat="42.097882843601965" lon="-1.361763818683297"><ele>541.2</ele><time>2026-03-30T17:00:52Z</time></trkpt><trkpt lat="42.09776959976727" lon="-1.3617514848538246"><ele>541.4000000000001</ele><time>2026-03-30T17:00:53Z</time></trkpt><trkpt lat="42.09765711898641" lon="-1.3617590334422676"><ele>541.6</ele><time>2026-03-30T17:00:54Z</time></trkpt><trkpt lat="42.09757389936359" lon="-1.3617532880984387"><ele>541.8000000000001</ele><time>2026-03-30T17:00:55Z</time></trkpt><trkpt lat="42.09750012617855" lon="-1.3617556619037912"><ele>542.0</ele><time>2026-03-30T17:00:56Z</time></trkpt><trkpt lat="42.09738113725375" lon="-1.3617841543428022"><ele>542.0</ele><time>2026-03-30T17:00:58Z</time></trkpt><trkpt lat="42.09726600423415" lon="-1.3618202539200326"><ele>542.0</ele><time>2026-03-30T17:01:00Z</time></trkpt><trkpt lat="42.0971585524476" lon="-1.3618583192019869"><ele>542.0</ele><time>2026-03-30T17:01:02Z</time></trkpt><trkpt lat="42.09703773856435" lon="-1.3619052327420171"><ele>542.0</ele><time>2026-03-30T17:01:04Z</time></trkpt><trkpt lat="42.096977133739415" lon="-1.3619299589046643"><ele>542.0</ele><time>2026-03-30T17:01:05Z</time></trkpt><trkpt lat="42.096899314604876" lon="-1.3619620031413757"><ele>542.0</ele><time>2026-03-30T17:01:06Z</time></trkpt><trkpt lat="42.09680079798581" lon="-1.3620025701441525"><ele>542.0</ele><time>2026-03-30T17:01:07Z</time></trkpt><trkpt lat="42.096685162508365" lon="-1.3620501863247036"><ele>542.0</ele><time>2026-03-30T17:01:08Z</time></trkpt><trkpt lat="42.09656240237781" lon="-1.3621014253396668"><ele>542.0</ele><time>2026-03-30T17:01:09Z</time></trkpt><trkpt lat="42.09643684993872" lon="-1.3621557632274548"><ele>542.0</ele><time>2026-03-30T17:01:10Z</time></trkpt><trkpt lat="42.09630808120403" lon="-1.3622114930664087"><ele>542.0</ele><time>2026-03-30T17:01:11Z</time></trkpt><trkpt lat="42.096177295609735" lon="-1.3622654283742812"><ele>542.0</ele><time>2026-03-30T17:01:12Z</time></trkpt><trkpt lat="42.09604748892664" lon="-1.3623187991980634"><ele>542.0</ele><time>2026-03-30T17:01:13Z</time></trkpt><trkpt lat="42.09591350262203" lon="-1.362372236502839"><ele>542.0</ele><time>2026-03-30T17:01:14Z</time></trkpt><trkpt lat="42.095786905490165" lon="-1.3624006981702643"><ele>542.0</ele><time>2026-03-30T17:01:15Z</time></trkpt><trkpt lat="42.09567100763031" lon="-1.3624652241511404"><ele>542.0</ele><time>2026-03-30T17:01:16Z</time></trkpt><trkpt lat="42.095557427174974" lon="-1.3625080244234677"><ele>542.0</ele><time>2026-03-30T17:01:17Z</time></trkpt><trkpt lat="42.09545499809095" lon="-1.3625517017119537"><ele>542.0</ele><time>2026-03-30T17:01:18Z</time></trkpt><trkpt lat="42.09535902401662" lon="-1.3625783304734804"><ele>542.0</ele><time>2026-03-30T17:01:19Z</time></trkpt><trkpt lat="42.095261424060794" lon="-1.3626285195688017"><ele>542.0</ele><time>2026-03-30T17:01:20Z</time></trkpt><trkpt lat="42.095154379772666" lon="-1.3626679212729385"><ele>542.0</ele><time>2026-03-30T17:01:21Z</time></trkpt><trkpt lat="42.095039122580246" lon="-1.3627113728857936"><ele>542.0</ele><time>2026-03-30T17:01:22Z</time></trkpt><trkpt lat="42.094931783199634" lon="-1.3627529037708195"><ele>541.0</ele><time>2026-03-30T17:01:23Z</time></trkpt><trkpt lat="42.094818204701234" lon="-1.3627985426277505"><ele>540.0</ele><time>2026-03-30T17:01:24Z</time></trkpt><trkpt lat="42.094706920942265" lon="-1.3628445158808993"><ele>539.0</ele><time>2026-03-30T17:01:25Z</time></trkpt><trkpt lat="42.09459644714337" lon="-1.3628708302148338"><ele>538.0</ele><time>2026-03-30T17:01:26Z</time></trkpt><trkpt lat="42.09448995366202" lon="-1.36292965728823"><ele>538.0</ele><time>2026-03-30T17:01:27Z</time></trkpt><trkpt lat="42.09437970639459" lon="-1.3629714802115358"><ele>538.0</ele><time>2026-03-30T17:01:28Z</time></trkpt><trkpt lat="42.09426258864296" lon="-1.363020394764895"><ele>538.0</ele><time>2026-03-30T17:01:29Z</time></trkpt><trkpt lat="42.09413918603522" lon="-1.3630598909162503"><ele>538.0</ele><time>2026-03-30T17:01:30Z</time></trkpt><trkpt lat="42.09400924248962" lon="-1.363131099252696"><ele>537.0</ele><time>2026-03-30T17:01:31Z</time></trkpt><trkpt lat="42.093876244056716" lon="-1.3631870821601275"><ele>536.0</ele><time>2026-03-30T17:01:32Z</time></trkpt><trkpt lat="42.09373522626528" lon="-1.3632323707142016"><ele>535.0</ele><time>2026-03-30T17:01:33Z</time></trkpt><trkpt lat="42.093597942902" lon="-1.3632872264852327"><ele>534.0</ele><time>2026-03-30T17:01:34Z</time></trkpt><trkpt lat="42.09346316069649" lon="-1.3633506156836475"><ele>534.0</ele><time>2026-03-30T17:01:35Z</time></trkpt><trkpt lat="42.09332991254782" lon="-1.3634002403649"><ele>534.0</ele><time>2026-03-30T17:01:36Z</time></trkpt><trkpt lat="42.09319152739884" lon="-1.3634432063473698"><ele>534.0</ele><time>2026-03-30T17:01:37Z</time></trkpt><trkpt lat="42.09305467559774" lon="-1.3635139742320086"><ele>534.0</ele><time>2026-03-30T17:01:38Z</time></trkpt><trkpt lat="42.09290894184834" lon="-1.3635738517581286"><ele>534.0</ele><time>2026-03-30T17:01:39Z</time></trkpt><trkpt lat="42.09274195820775" lon="-1.3636180872652954"><ele>534.0</ele><time>2026-03-30T17:01:40Z</time></trkpt><trkpt lat="42.092570898403665" lon="-1.3636941952759665"><ele>534.0</ele><time>2026-03-30T17:01:41Z</time></trkpt><trkpt lat="42.09239564103311" lon="-1.363756588854797"><ele>534.0</ele><time>2026-03-30T17:01:42Z</time></trkpt><trkpt lat="42.0922458211015" lon="-1.36383769806334"><ele>534.0</ele><time>2026-03-30T17:01:43Z</time></trkpt><trkpt lat="42.09209823996879" lon="-1.363896222974875"><ele>534.0</ele><time>2026-03-30T17:01:44Z</time></trkpt><trkpt lat="42.09197667705899" lon="-1.363944817682622"><ele>534.0</ele><time>2026-03-30T17:01:45Z</time></trkpt><trkpt lat="42.09186829584217" lon="-1.3639883739401129"><ele>534.2</ele><time>2026-03-30T17:01:46Z</time></trkpt><trkpt lat="42.09176494278279" lon="-1.3640116954405188"><ele>534.4</ele><time>2026-03-30T17:01:47Z</time></trkpt><trkpt lat="42.09167022027177" lon="-1.3640682726847546"><ele>534.6</ele><time>2026-03-30T17:01:48Z</time></trkpt><trkpt lat="42.09157337523414" lon="-1.364107928134069"><ele>534.8</ele><time>2026-03-30T17:01:49Z</time></trkpt><trkpt lat="42.09146297085673" lon="-1.3641360641589366"><ele>535.0</ele><time>2026-03-30T17:01:50Z</time></trkpt><trkpt lat="42.09135823126332" lon="-1.3641870503977218"><ele>535.0</ele><time>2026-03-30T17:01:51Z</time></trkpt><trkpt lat="42.09125409904165" lon="-1.3642317859962347"><ele>535.0</ele><time>2026-03-30T17:01:52Z</time></trkpt><trkpt lat="42.091154343378584" lon="-1.3642820938935245"><ele>535.0</ele><time>2026-03-30T17:01:53Z</time></trkpt><trkpt lat="42.091082639936" lon="-1.3643036603782868"><ele>535.0</ele><time>2026-03-30T17:01:54Z</time></trkpt><trkpt lat="42.091010283327435" lon="-1.3643379162484595"><ele>535.0</ele><time>2026-03-30T17:01:55Z</time></trkpt><trkpt lat="42.090903344339544" lon="-1.3643443602415304"><ele>535.0</ele><time>2026-03-30T17:01:57Z</time></trkpt><trkpt lat="42.090841905551756" lon="-1.36430931095467"><ele>535.0</ele><time>2026-03-30T17:01:58Z</time></trkpt><trkpt lat="42.0907866112626" lon="-1.3642421212266107"><ele>535.0</ele><time>2026-03-30T17:01:59Z</time></trkpt><trkpt lat="42.09072465460578" lon="-1.3641997244362944"><ele>535.0</ele><time>2026-03-30T17:02:00Z</time></trkpt><trkpt lat="42.090635807064864" lon="-1.364127856602251"><ele>535.0</ele><time>2026-03-30T17:02:02Z</time></trkpt><trkpt lat="42.09053697630679" lon="-1.3640335091897993"><ele>535.0</ele><time>2026-03-30T17:02:04Z</time></trkpt><trkpt lat="42.09046853229268" lon="-1.3639866177733986"><ele>535.0</ele><time>2026-03-30T17:02:05Z</time></trkpt><trkpt lat="42.09040403840221" lon="-1.36394557327962"><ele>535.0</ele><time>2026-03-30T17:02:06Z</time></trkpt><trkpt lat="42.09033415063887" lon="-1.3639005249540677"><ele>535.0</ele><time>2026-03-30T17:02:08Z</time></trkpt><trkpt lat="42.09026261314487" lon="-1.3638383570083814"><ele>535.0</ele><time>2026-03-30T17:05:19Z</time></trkpt><trkpt lat="42.09016734011489" lon="-1.3637467950383995"><ele>535.0</ele><time>2026-03-30T17:05:21Z</time></trkpt><trkpt lat="42.09010629177976" lon="-1.3636820926440252"><ele>535.0</ele><time>2026-03-30T17:05:22Z</time></trkpt><trkpt lat="42.09003779114146" lon="-1.363607804768074"><ele>535.0</ele><time>2026-03-30T17:05:23Z</time></trkpt><trkpt lat="42.089945485413345" lon="-1.3635089654674484"><ele>535.0</ele><time>2026-03-30T17:05:24Z</time></trkpt><trkpt lat="42.08987324104779" lon="-1.3634356876027067"><ele>535.0</ele><time>2026-03-30T17:05:25Z</time></trkpt><trkpt lat="42.08977600623145" lon="-1.363339169428643"><ele>535.0</ele><time>2026-03-30T17:05:26Z</time></trkpt><trkpt lat="42.08968524044713" lon="-1.363251064131981"><ele>535.0</ele><time>2026-03-30T17:05:27Z</time></trkpt><trkpt lat="42.089601144085975" lon="-1.3631694327746744"><ele>535.0</ele><time>2026-03-30T17:05:28Z</time></trkpt><trkpt lat="42.089511030834935" lon="-1.363081960893192"><ele>535.0</ele><time>2026-03-30T17:05:29Z</time></trkpt><trkpt lat="42.08943400845169" lon="-1.3630071961554309"><ele>535.0</ele><time>2026-03-30T17:05:30Z</time></trkpt><trkpt lat="42.089359183928494" lon="-1.3629345648615756"><ele>535.0</ele><time>2026-03-30T17:05:31Z</time></trkpt><trkpt lat="42.089281322352946" lon="-1.3628589855291529"><ele>535.0</ele><time>2026-03-30T17:05:32Z</time></trkpt><trkpt lat="42.08919451938015" lon="-1.362774725676111"><ele>534.8333333333334</ele><time>2026-03-30T17:05:33Z</time></trkpt><trkpt lat="42.08910875262523" lon="-1.3626914727536061"><ele>534.6666666666667</ele><time>2026-03-30T17:05:34Z</time></trkpt><trkpt lat="42.0890349374201" lon="-1.362619821199817"><ele>534.5</ele><time>2026-03-30T17:05:35Z</time></trkpt><trkpt lat="42.088967923432214" lon="-1.3625549080304826"><ele>534.3333333333334</ele><time>2026-03-30T17:05:36Z</time></trkpt><trkpt lat="42.088903129573026" lon="-1.3624923492790586"><ele>534.1666666666666</ele><time>2026-03-30T17:05:37Z</time></trkpt><trkpt lat="42.088831572266855" lon="-1.3624232603887891"><ele>534.0</ele><time>2026-03-30T17:05:38Z</time></trkpt><trkpt lat="42.08875719580974" lon="-1.3623514496073859"><ele>533.6</ele><time>2026-03-30T17:05:39Z</time></trkpt><trkpt lat="42.08868088254339" lon="-1.362274501783262"><ele>533.2</ele><time>2026-03-30T17:05:40Z</time></trkpt><trkpt lat="42.088606608115825" lon="-1.3621975673031879"><ele>532.8000000000001</ele><time>2026-03-30T17:05:41Z</time></trkpt><trkpt lat="42.08852544340337" lon="-1.3621134957708259"><ele>532.4</ele><time>2026-03-30T17:05:42Z</time></trkpt><trkpt lat="42.08844241127517" lon="-1.3620286950673923"><ele>532.0</ele><time>2026-03-30T17:05:43Z</time></trkpt><trkpt lat="42.0883608720157" lon="-1.3619456440114532"><ele>532.0</ele><time>2026-03-30T17:05:44Z</time></trkpt><trkpt lat="42.0882783504491" lon="-1.3618625103093713"><ele>532.0</ele><time>2026-03-30T17:05:45Z</time></trkpt><trkpt lat="42.08819533649865" lon="-1.3617832723127414"><ele>532.0</ele><time>2026-03-30T17:05:46Z</time></trkpt><trkpt lat="42.08810860184166" lon="-1.3617002716074746"><ele>532.0</ele><time>2026-03-30T17:05:47Z</time></trkpt><trkpt lat="42.088018451094406" lon="-1.3616129210384293"><ele>532.0</ele><time>2026-03-30T17:05:48Z</time></trkpt><trkpt lat="42.08792878625834" lon="-1.3615223200721676"><ele>531.75</ele><time>2026-03-30T17:05:49Z</time></trkpt><trkpt lat="42.087838528152595" lon="-1.361431119684713"><ele>531.5</ele><time>2026-03-30T17:05:50Z</time></trkpt><trkpt lat="42.087746656483006" lon="-1.3613382893781998"><ele>531.25</ele><time>2026-03-30T17:05:51Z</time></trkpt><trkpt lat="42.08765347095176" lon="-1.3612447617664598"><ele>531.0</ele><time>2026-03-30T17:05:52Z</time></trkpt><trkpt lat="42.08755512785509" lon="-1.3611474140540682"><ele>531.0</ele><time>2026-03-30T17:05:53Z</time></trkpt><trkpt lat="42.08745470850156" lon="-1.3610480111624792"><ele>531.0</ele><time>2026-03-30T17:05:54Z</time></trkpt><trkpt lat="42.08735114988182" lon="-1.3609455005407687"><ele>531.0</ele><time>2026-03-30T17:05:55Z</time></trkpt><trkpt lat="42.08724049594124" lon="-1.3608359666842904"><ele>531.0</ele><time>2026-03-30T17:05:56Z</time></trkpt><trkpt lat="42.08712206575018" lon="-1.3607180902245453"><ele>530.75</ele><time>2026-03-30T17:05:57Z</time></trkpt><trkpt lat="42.08701789303688" lon="-1.3606113687557975"><ele>530.5</ele><time>2026-03-30T17:05:58Z</time></trkpt><trkpt lat="42.08691558436968" lon="-1.3605065567579917"><ele>530.25</ele><time>2026-03-30T17:05:59Z</time></trkpt><trkpt lat="42.08680821849232" lon="-1.3603965639902365"><ele>530.0</ele><time>2026-03-30T17:06:00Z</time></trkpt><trkpt lat="42.08669492938271" lon="-1.360280502992141"><ele>529.6666666666666</ele><time>2026-03-30T17:06:01Z</time></trkpt><trkpt lat="42.0865762419887" lon="-1.3601610059444167"><ele>529.3333333333334</ele><time>2026-03-30T17:06:02Z</time></trkpt><trkpt lat="42.08645311114028" lon="-1.3600410906847282"><ele>529.0</ele><time>2026-03-30T17:06:03Z</time></trkpt><trkpt lat="42.086329123223784" lon="-1.3599219841858332"><ele>529.0</ele><time>2026-03-30T17:06:04Z</time></trkpt><trkpt lat="42.08620711105577" lon="-1.359802168560589"><ele>529.0</ele><time>2026-03-30T17:06:05Z</time></trkpt><trkpt lat="42.08609093569718" lon="-1.3596786584437701"><ele>529.0</ele><time>2026-03-30T17:06:06Z</time></trkpt><trkpt lat="42.08597336549497" lon="-1.3595725110228476"><ele>529.0</ele><time>2026-03-30T17:06:07Z</time></trkpt><trkpt lat="42.085841819224456" lon="-1.3594856512496967"><ele>528.6666666666667</ele><time>2026-03-30T17:06:08Z</time></trkpt><trkpt lat="42.08570223829497" lon="-1.3594009413146084"><ele>528.3333333333334</ele><time>2026-03-30T17:06:09Z</time></trkpt><trkpt lat="42.08555897767983" lon="-1.3593172867571168"><ele>528.0</ele><time>2026-03-30T17:06:10Z</time></trkpt><trkpt lat="42.08541813775637" lon="-1.3592351183172153"><ele>528.0</ele><time>2026-03-30T17:06:11Z</time></trkpt><trkpt lat="42.08527408781646" lon="-1.3591475429003206"><ele>528.0</ele><time>2026-03-30T17:06:12Z</time></trkpt><trkpt lat="42.08513504382639" lon="-1.3590624281371906"><ele>528.0</ele><time>2026-03-30T17:06:13Z</time></trkpt><trkpt lat="42.084992305727816" lon="-1.3589750520329893"><ele>528.3333333333334</ele><time>2026-03-30T17:06:14Z</time></trkpt><trkpt lat="42.084848373639254" lon="-1.3588872344688374"><ele>528.6666666666667</ele><time>2026-03-30T17:06:15Z</time></trkpt><trkpt lat="42.084701795840026" lon="-1.3587984152153074"><ele>529.0</ele><time>2026-03-30T17:06:16Z</time></trkpt><trkpt lat="42.08456430633622" lon="-1.3587151031250564"><ele>528.0</ele><time>2026-03-30T17:06:17Z</time></trkpt><trkpt lat="42.08442510883417" lon="-1.3586307558321025"><ele>527.0</ele><time>2026-03-30T17:06:18Z</time></trkpt><trkpt lat="42.08428353674844" lon="-1.358544789525623"><ele>526.0</ele><time>2026-03-30T17:06:19Z</time></trkpt><trkpt lat="42.08413999190268" lon="-1.3584572598374498"><ele>526.3333333333334</ele><time>2026-03-30T17:06:20Z</time></trkpt><trkpt lat="42.08400654009662" lon="-1.3583758844967442"><ele>526.6666666666666</ele><time>2026-03-30T17:06:21Z</time></trkpt><trkpt lat="42.08385595366893" lon="-1.3582838923628286"><ele>527.0</ele><time>2026-03-30T17:06:22Z</time></trkpt><trkpt lat="42.08371479966937" lon="-1.3581971350995925"><ele>527.0</ele><time>2026-03-30T17:06:23Z</time></trkpt><trkpt lat="42.08357300491896" lon="-1.3581099839304067"><ele>527.0</ele><time>2026-03-30T17:06:24Z</time></trkpt><trkpt lat="42.08342398481797" lon="-1.358018391975655"><ele>527.0</ele><time>2026-03-30T17:06:25Z</time></trkpt><trkpt lat="42.083279258241255" lon="-1.3579294388959198"><ele>526.6666666666666</ele><time>2026-03-30T17:06:26Z</time></trkpt><trkpt lat="42.083134340076555" lon="-1.357841100576915"><ele>526.3333333333334</ele><time>2026-03-30T17:06:27Z</time></trkpt><trkpt lat="42.08299709986697" lon="-1.357758305423797"><ele>526.0</ele><time>2026-03-30T17:06:28Z</time></trkpt><trkpt lat="42.0828450160626" lon="-1.3576665556248688"><ele>526.0</ele><time>2026-03-30T17:06:29Z</time></trkpt><trkpt lat="42.08270372843372" lon="-1.3575802814288151"><ele>526.0</ele><time>2026-03-30T17:06:30Z</time></trkpt><trkpt lat="42.08256371429449" lon="-1.357490877486848"><ele>526.0</ele><time>2026-03-30T17:06:31Z</time></trkpt><trkpt lat="42.082423545762545" lon="-1.357400795122373"><ele>525.6666666666667</ele><time>2026-03-30T17:06:32Z</time></trkpt><trkpt lat="42.082280558425516" lon="-1.3573093104358565"><ele>525.3333333333334</ele><time>2026-03-30T17:06:33Z</time></trkpt><trkpt lat="42.0821447676628" lon="-1.3572250866361149"><ele>525.0</ele><time>2026-03-30T17:06:34Z</time></trkpt><trkpt lat="42.082009144107175" lon="-1.3571409666520207"><ele>525.6666666666666</ele><time>2026-03-30T17:06:35Z</time></trkpt><trkpt lat="42.0818748413613" lon="-1.3570581262972976"><ele>526.3333333333333</ele><time>2026-03-30T17:06:36Z</time></trkpt><trkpt lat="42.081738350404684" lon="-1.3569752675599658"><ele>527.0</ele><time>2026-03-30T17:06:37Z</time></trkpt><trkpt lat="42.08159669678546" lon="-1.3568899663596556"><ele>527.3333333333333</ele><time>2026-03-30T17:06:38Z</time></trkpt><trkpt lat="42.08144099767672" lon="-1.3567980524405916"><ele>527.6666666666666</ele><time>2026-03-30T17:06:39Z</time></trkpt><trkpt lat="42.08129179125549" lon="-1.3567099528950155"><ele>528.0</ele><time>2026-03-30T17:06:40Z</time></trkpt><trkpt lat="42.081151120227716" lon="-1.3566240326951329"><ele>528.0</ele><time>2026-03-30T17:06:41Z</time></trkpt><trkpt lat="42.081020812451726" lon="-1.3565444422893855"><ele>528.0</ele><time>2026-03-30T17:06:42Z</time></trkpt><trkpt lat="42.080885538986195" lon="-1.356462937903715"><ele>528.0</ele><time>2026-03-30T17:06:43Z</time></trkpt><trkpt lat="42.08074553558807" lon="-1.3563790321474618"><ele>528.0</ele><time>2026-03-30T17:06:44Z</time></trkpt><trkpt lat="42.080605867761584" lon="-1.356295327471063"><ele>527.0</ele><time>2026-03-30T17:06:45Z</time></trkpt><trkpt lat="42.080466823603224" lon="-1.3562119965708197"><ele>526.0</ele><time>2026-03-30T17:06:46Z</time></trkpt><trkpt lat="42.08032807006336" lon="-1.356125567474295"><ele>525.0</ele><time>2026-03-30T17:06:47Z</time></trkpt><trkpt lat="42.08019306716461" lon="-1.3560412944019997"><ele>525.0</ele><time>2026-03-30T17:06:48Z</time></trkpt><trkpt lat="42.080068832084365" lon="-1.355963742989942"><ele>525.0</ele><time>2026-03-30T17:06:49Z</time></trkpt><trkpt lat="42.07995110816231" lon="-1.355890758547183"><ele>525.0</ele><time>2026-03-30T17:06:50Z</time></trkpt><trkpt lat="42.079823377881084" lon="-1.355814158870105"><ele>525.0</ele><time>2026-03-30T17:06:51Z</time></trkpt><trkpt lat="42.079672306753245" lon="-1.3557253075378304"><ele>526.3333333333334</ele><time>2026-03-30T17:06:52Z</time></trkpt><trkpt lat="42.07950444987099" lon="-1.3556275632888888"><ele>527.6666666666667</ele><time>2026-03-30T17:06:53Z</time></trkpt><trkpt lat="42.079342316217314" lon="-1.3555315292445391"><ele>529.0</ele><time>2026-03-30T17:06:54Z</time></trkpt><trkpt lat="42.079199409253995" lon="-1.3554229328438634"><ele>528.6666666666667</ele><time>2026-03-30T17:06:55Z</time></trkpt><trkpt lat="42.07905588528805" lon="-1.3553347181525677"><ele>528.3333333333334</ele><time>2026-03-30T17:06:56Z</time></trkpt><trkpt lat="42.0789134613247" lon="-1.3552488765746071"><ele>528.0</ele><time>2026-03-30T17:06:57Z</time></trkpt><trkpt lat="42.078781678791124" lon="-1.3551697023698634"><ele>528.0</ele><time>2026-03-30T17:06:58Z</time></trkpt><trkpt lat="42.07865972282349" lon="-1.3550866359427967"><ele>528.0</ele><time>2026-03-30T17:06:59Z</time></trkpt><trkpt lat="42.07853503606075" lon="-1.3550309704022785"><ele>528.0</ele><time>2026-03-30T17:07:00Z</time></trkpt><trkpt lat="42.07842696170342" lon="-1.354966390830814"><ele>528.0</ele><time>2026-03-30T17:07:01Z</time></trkpt><trkpt lat="42.07833344213258" lon="-1.3549140129796187"><ele>527.5</ele><time>2026-03-30T17:07:02Z</time></trkpt><trkpt lat="42.078250221219335" lon="-1.35487230387124"><ele>527.0</ele><time>2026-03-30T17:07:03Z</time></trkpt><trkpt lat="42.07814916133615" lon="-1.3548248568850818"><ele>526.5</ele><time>2026-03-30T17:07:04Z</time></trkpt><trkpt lat="42.078040965925105" lon="-1.354776027391738"><ele>526.0</ele><time>2026-03-30T17:07:05Z</time></trkpt><trkpt lat="42.07789832131459" lon="-1.3547121942791738"><ele>526.0</ele><time>2026-03-30T17:07:06Z</time></trkpt><trkpt lat="42.07775751923812" lon="-1.3546502651757468"><ele>526.0</ele><time>2026-03-30T17:07:07Z</time></trkpt><trkpt lat="42.07769437337169" lon="-1.3546230188082093"><ele>526.0</ele><time>2026-03-30T17:07:08Z</time></trkpt><trkpt lat="42.0775894607738" lon="-1.354577751051087"><ele>526.0</ele><time>2026-03-30T17:07:09Z</time></trkpt><trkpt lat="42.07747300817818" lon="-1.354527503780783"><ele>526.0</ele><time>2026-03-30T17:07:10Z</time></trkpt><trkpt lat="42.0773571605485" lon="-1.354478190310284"><ele>526.0</ele><time>2026-03-30T17:07:11Z</time></trkpt><trkpt lat="42.07723782886002" lon="-1.354428933445555"><ele>526.0</ele><time>2026-03-30T17:07:12Z</time></trkpt><trkpt lat="42.077119287818256" lon="-1.3543800030529094"><ele>526.0</ele><time>2026-03-30T17:07:13Z</time></trkpt><trkpt lat="42.07699868542778" lon="-1.354330158993423"><ele>526.0</ele><time>2026-03-30T17:07:14Z</time></trkpt><trkpt lat="42.076881246102324" lon="-1.3542815360952083"><ele>526.0</ele><time>2026-03-30T17:07:15Z</time></trkpt><trkpt lat="42.076779703975525" lon="-1.3542394949859617"><ele>526.0</ele><time>2026-03-30T17:07:16Z</time></trkpt><trkpt lat="42.07669042366763" lon="-1.3542025304657823"><ele>526.0</ele><time>2026-03-30T17:07:17Z</time></trkpt><trkpt lat="42.0766207548843" lon="-1.3541736841427068"><ele>526.0</ele><time>2026-03-30T17:07:18Z</time></trkpt><trkpt lat="42.07655763360067" lon="-1.3541439693600836"><ele>526.0</ele><time>2026-03-30T17:07:19Z</time></trkpt><trkpt lat="42.07646161401563" lon="-1.354096494212603"><ele>526.0</ele><time>2026-03-30T17:07:21Z</time></trkpt><trkpt lat="42.07639784710212" lon="-1.3540449492922797"><ele>526.0</ele><time>2026-03-30T17:07:23Z</time></trkpt><trkpt lat="42.07652847156977" lon="-1.3540389285660257"><ele>526.0</ele><time>2026-03-30T17:08:54Z</time></trkpt><trkpt lat="42.07662899755265" lon="-1.3541069168822053"><ele>526.0</ele><time>2026-03-30T17:08:55Z</time></trkpt><trkpt lat="42.076738149559844" lon="-1.3541408959833896"><ele>526.0</ele><time>2026-03-30T17:08:56Z</time></trkpt><trkpt lat="42.076842009517065" lon="-1.3542062350445294"><ele>526.0</ele><time>2026-03-30T17:08:57Z</time></trkpt><trkpt lat="42.076964302702635" lon="-1.3542680197710812"><ele>526.0</ele><time>2026-03-30T17:08:58Z</time></trkpt><trkpt lat="42.07707800431279" lon="-1.3543104635558543"><ele>526.0</ele><time>2026-03-30T17:08:59Z</time></trkpt><trkpt lat="42.07717767225294" lon="-1.3543523833289377"><ele>526.0</ele><time>2026-03-30T17:09:00Z</time></trkpt><trkpt lat="42.077272125908465" lon="-1.3543911031792673"><ele>526.0</ele><time>2026-03-30T17:09:01Z</time></trkpt><trkpt lat="42.07737886764267" lon="-1.3544322630872678"><ele>526.0</ele><time>2026-03-30T17:09:03Z</time></trkpt><trkpt lat="42.07743952264413" lon="-1.3544601287899958"><ele>526.0</ele><time>2026-03-30T17:09:05Z</time></trkpt><trkpt lat="42.07750542009791" lon="-1.3544877515175537"><ele>526.0</ele><time>2026-03-30T17:09:08Z</time></trkpt><trkpt lat="42.07760121662592" lon="-1.354540350226392"><ele>526.0</ele><time>2026-03-30T17:09:32Z</time></trkpt><trkpt lat="42.077684773892656" lon="-1.354592100246725"><ele>526.0</ele><time>2026-03-30T17:09:33Z</time></trkpt><trkpt lat="42.07778873087584" lon="-1.3546167692009923"><ele>526.0</ele><time>2026-03-30T17:09:34Z</time></trkpt><trkpt lat="42.077892910600944" lon="-1.3546626438306748"><ele>526.0</ele><time>2026-03-30T17:09:35Z</time></trkpt><trkpt lat="42.07801865686371" lon="-1.3547423228763835"><ele>526.0</ele><time>2026-03-30T17:09:36Z</time></trkpt><trkpt lat="42.07814506837687" lon="-1.354794084978511"><ele>526.0</ele><time>2026-03-30T17:09:37Z</time></trkpt><trkpt lat="42.0782902246082" lon="-1.354862161538196"><ele>526.5</ele><time>2026-03-30T17:09:38Z</time></trkpt><trkpt lat="42.07841808273857" lon="-1.3549332986111506"><ele>527.0</ele><time>2026-03-30T17:09:39Z</time></trkpt><trkpt lat="42.07855060721565" lon="-1.355006926602069"><ele>527.5</ele><time>2026-03-30T17:09:40Z</time></trkpt><trkpt lat="42.07867673522399" lon="-1.3550824283137495"><ele>528.0</ele><time>2026-03-30T17:09:41Z</time></trkpt><trkpt lat="42.07880425384189" lon="-1.3551627500221253"><ele>528.0</ele><time>2026-03-30T17:09:42Z</time></trkpt><trkpt lat="42.07895456218211" lon="-1.3552641707977582"><ele>528.0</ele><time>2026-03-30T17:09:43Z</time></trkpt><trkpt lat="42.07910474902723" lon="-1.3553354047145434"><ele>528.0</ele><time>2026-03-30T17:09:44Z</time></trkpt><trkpt lat="42.079232453236905" lon="-1.35543524846548"><ele>528.25</ele><time>2026-03-30T17:09:45Z</time></trkpt><trkpt lat="42.07936129651065" lon="-1.3555116224203583"><ele>528.5</ele><time>2026-03-30T17:09:46Z</time></trkpt><trkpt lat="42.07947885595608" lon="-1.3555817887962596"><ele>528.75</ele><time>2026-03-30T17:09:47Z</time></trkpt><trkpt lat="42.07959327515145" lon="-1.3556505384206243"><ele>529.0</ele><time>2026-03-30T17:09:48Z</time></trkpt><trkpt lat="42.07970818301694" lon="-1.3557169686574098"><ele>529.0</ele><time>2026-03-30T17:09:49Z</time></trkpt><trkpt lat="42.07983138289638" lon="-1.3557892429350795"><ele>529.0</ele><time>2026-03-30T17:09:50Z</time></trkpt><trkpt lat="42.07993748894189" lon="-1.3558557893751098"><ele>529.0</ele><time>2026-03-30T17:09:51Z</time></trkpt><trkpt lat="42.08006845438593" lon="-1.3559141990260701"><ele>529.0</ele><time>2026-03-30T17:09:52Z</time></trkpt><trkpt lat="42.08019737774856" lon="-1.3559946769958973"><ele>528.0</ele><time>2026-03-30T17:09:53Z</time></trkpt><trkpt lat="42.08032076615533" lon="-1.3560716999167368"><ele>527.0</ele><time>2026-03-30T17:09:54Z</time></trkpt><trkpt lat="42.080435432236555" lon="-1.3561432780506442"><ele>526.0</ele><time>2026-03-30T17:09:55Z</time></trkpt><trkpt lat="42.080542750227146" lon="-1.356225821614715"><ele>525.0</ele><time>2026-03-30T17:09:56Z</time></trkpt><trkpt lat="42.080661781424396" lon="-1.3563031597497115"><ele>525.25</ele><time>2026-03-30T17:09:57Z</time></trkpt><trkpt lat="42.08079390166675" lon="-1.3563590545159832"><ele>525.5</ele><time>2026-03-30T17:09:58Z</time></trkpt><trkpt lat="42.08091605771355" lon="-1.3564564405736521"><ele>525.75</ele><time>2026-03-30T17:09:59Z</time></trkpt><trkpt lat="42.0810498113398" lon="-1.3565294724277899"><ele>526.0</ele><time>2026-03-30T17:10:00Z</time></trkpt><trkpt lat="42.08118437392288" lon="-1.35661295808304"><ele>526.3333333333334</ele><time>2026-03-30T17:10:01Z</time></trkpt><trkpt lat="42.081331135165286" lon="-1.3566923263924031"><ele>526.6666666666666</ele><time>2026-03-30T17:10:02Z</time></trkpt><trkpt lat="42.08149295963239" lon="-1.3567972549956615"><ele>527.0</ele><time>2026-03-30T17:10:03Z</time></trkpt><trkpt lat="42.08167456959303" lon="-1.3569077039229003"><ele>527.0</ele><time>2026-03-30T17:10:04Z</time></trkpt><trkpt lat="42.081859634240224" lon="-1.3570036878586251"><ele>527.0</ele><time>2026-03-30T17:10:05Z</time></trkpt><trkpt lat="42.08203942542209" lon="-1.357109907048413"><ele>527.0</ele><time>2026-03-30T17:10:06Z</time></trkpt><trkpt lat="42.08223747204916" lon="-1.3572403634333794"><ele>526.6666666666666</ele><time>2026-03-30T17:10:07Z</time></trkpt><trkpt lat="42.082421243769794" lon="-1.3573715822071797"><ele>526.3333333333334</ele><time>2026-03-30T17:10:08Z</time></trkpt><trkpt lat="42.082599937467634" lon="-1.3574695548626508"><ele>526.0</ele><time>2026-03-30T17:10:09Z</time></trkpt><trkpt lat="42.082787176288136" lon="-1.3575869043140791"><ele>526.0</ele><time>2026-03-30T17:10:10Z</time></trkpt><trkpt lat="42.08299033050306" lon="-1.357705200540145"><ele>526.0</ele><time>2026-03-30T17:10:11Z</time></trkpt><trkpt lat="42.083171000860915" lon="-1.3578222166967004"><ele>526.0</ele><time>2026-03-30T17:10:12Z</time></trkpt><trkpt lat="42.08335665721093" lon="-1.3579302437546004"><ele>526.3333333333334</ele><time>2026-03-30T17:10:13Z</time></trkpt><trkpt lat="42.08353537325987" lon="-1.3580446485086224"><ele>526.6666666666666</ele><time>2026-03-30T17:10:14Z</time></trkpt><trkpt lat="42.08371011397125" lon="-1.3581508206149107"><ele>527.0</ele><time>2026-03-30T17:10:15Z</time></trkpt><trkpt lat="42.08388888780541" lon="-1.358257636636558"><ele>527.0</ele><time>2026-03-30T17:10:16Z</time></trkpt><trkpt lat="42.08406831296303" lon="-1.3583595317169126"><ele>527.0</ele><time>2026-03-30T17:10:17Z</time></trkpt><trkpt lat="42.08425042425707" lon="-1.3584593250293808"><ele>527.0</ele><time>2026-03-30T17:10:18Z</time></trkpt><trkpt lat="42.084355265544225" lon="-1.3585119942212176"><ele>526.6666666666666</ele><time>2026-03-30T17:10:19Z</time></trkpt><trkpt lat="42.08450338902114" lon="-1.358612098159973"><ele>526.3333333333334</ele><time>2026-03-30T17:10:20Z</time></trkpt><trkpt lat="42.084669187476514" lon="-1.358728482445037"><ele>526.0</ele><time>2026-03-30T17:10:21Z</time></trkpt><trkpt lat="42.0848417925615" lon="-1.3588444113959466"><ele>526.6666666666667</ele><time>2026-03-30T17:10:22Z</time></trkpt><trkpt lat="42.08503135483138" lon="-1.3589640169561545"><ele>527.3333333333334</ele><time>2026-03-30T17:10:23Z</time></trkpt><trkpt lat="42.085221997816404" lon="-1.3590765961870335"><ele>528.0</ele><time>2026-03-30T17:10:24Z</time></trkpt><trkpt lat="42.085407494466956" lon="-1.3591872790573254"><ele>528.0</ele><time>2026-03-30T17:10:25Z</time></trkpt><trkpt lat="42.08559145090081" lon="-1.3592994630136566"><ele>528.0</ele><time>2026-03-30T17:10:26Z</time></trkpt><trkpt lat="42.08576961536495" lon="-1.3593992502044872"><ele>528.0</ele><time>2026-03-30T17:10:27Z</time></trkpt><trkpt lat="42.08593095631429" lon="-1.3594890776756607"><ele>528.0</ele><time>2026-03-30T17:10:28Z</time></trkpt><trkpt lat="42.08608033514889" lon="-1.3595925612587587"><ele>528.0</ele><time>2026-03-30T17:10:29Z</time></trkpt><trkpt lat="42.08623250312152" lon="-1.359729906122171"><ele>528.0</ele><time>2026-03-30T17:10:30Z</time></trkpt><trkpt lat="42.08638297708855" lon="-1.3598899749987676"><ele>528.0</ele><time>2026-03-30T17:10:31Z</time></trkpt><trkpt lat="42.08653601699662" lon="-1.360058622313843"><ele>528.0</ele><time>2026-03-30T17:10:32Z</time></trkpt><trkpt lat="42.08669368980948" lon="-1.3602224155700375"><ele>528.0</ele><time>2026-03-30T17:10:33Z</time></trkpt><trkpt lat="42.08685118404438" lon="-1.360381608139666"><ele>528.6666666666666</ele><time>2026-03-30T17:10:34Z</time></trkpt><trkpt lat="42.08701184079382" lon="-1.3605425730631515"><ele>529.3333333333333</ele><time>2026-03-30T17:10:35Z</time></trkpt><trkpt lat="42.08717354325039" lon="-1.3607050076754725"><ele>530.0</ele><time>2026-03-30T17:10:36Z</time></trkpt><trkpt lat="42.08733735318794" lon="-1.360864264286806"><ele>530.3333333333333</ele><time>2026-03-30T17:10:37Z</time></trkpt><trkpt lat="42.087491520764395" lon="-1.3610235994604298"><ele>530.6666666666666</ele><time>2026-03-30T17:10:38Z</time></trkpt><trkpt lat="42.08765066463234" lon="-1.3611831444864293"><ele>531.0</ele><time>2026-03-30T17:10:39Z</time></trkpt><trkpt lat="42.08780842414756" lon="-1.3613430808906453"><ele>530.6666666666666</ele><time>2026-03-30T17:10:40Z</time></trkpt><trkpt lat="42.08795994951288" lon="-1.3614938603543654"><ele>530.3333333333333</ele><time>2026-03-30T17:10:41Z</time></trkpt><trkpt lat="42.0881099094789" lon="-1.3616403405474782"><ele>530.0</ele><time>2026-03-30T17:10:42Z</time></trkpt><trkpt lat="42.088256318533205" lon="-1.3617857634936865"><ele>530.6666666666666</ele><time>2026-03-30T17:10:43Z</time></trkpt><trkpt lat="42.088396816396695" lon="-1.3619344658358001"><ele>531.3333333333334</ele><time>2026-03-30T17:10:44Z</time></trkpt><trkpt lat="42.088532235298814" lon="-1.3620775104317682"><ele>532.0</ele><time>2026-03-30T17:10:45Z</time></trkpt><trkpt lat="42.088669468747966" lon="-1.362214370265453"><ele>532.0</ele><time>2026-03-30T17:10:46Z</time></trkpt><trkpt lat="42.088809619857265" lon="-1.3623427329633397"><ele>532.0</ele><time>2026-03-30T17:10:47Z</time></trkpt><trkpt lat="42.088945859259866" lon="-1.362474120653993"><ele>532.0</ele><time>2026-03-30T17:10:48Z</time></trkpt><trkpt lat="42.0890832353827" lon="-1.3626148227351775"><ele>532.6666666666667</ele><time>2026-03-30T17:10:49Z</time></trkpt><trkpt lat="42.089212561942276" lon="-1.3627505469054029"><ele>533.3333333333334</ele><time>2026-03-30T17:10:50Z</time></trkpt><trkpt lat="42.08934982456351" lon="-1.3628872147149353"><ele>534.0</ele><time>2026-03-30T17:10:51Z</time></trkpt><trkpt lat="42.089481517377145" lon="-1.3630015846973356"><ele>534.3333333333334</ele><time>2026-03-30T17:10:52Z</time></trkpt><trkpt lat="42.08961467810664" lon="-1.363130454583036"><ele>534.6666666666667</ele><time>2026-03-30T17:10:53Z</time></trkpt><trkpt lat="42.08975551011969" lon="-1.3632744998786257"><ele>535.0</ele><time>2026-03-30T17:10:54Z</time></trkpt><trkpt lat="42.08988479960853" lon="-1.3634079909124046"><ele>535.3333333333334</ele><time>2026-03-30T17:10:55Z</time></trkpt><trkpt lat="42.09001921290944" lon="-1.3635330792523166"><ele>535.6666666666666</ele><time>2026-03-30T17:10:56Z</time></trkpt><trkpt lat="42.09015754441525" lon="-1.3636786500947546"><ele>536.0</ele><time>2026-03-30T17:10:57Z</time></trkpt><trkpt lat="42.09027664961261" lon="-1.3637924780207509"><ele>535.75</ele><time>2026-03-30T17:10:58Z</time></trkpt><trkpt lat="42.090409766758206" lon="-1.3639144084528994"><ele>535.5</ele><time>2026-03-30T17:10:59Z</time></trkpt><trkpt lat="42.09053564116601" lon="-1.3640228778844796"><ele>535.25</ele><time>2026-03-30T17:11:00Z</time></trkpt><trkpt lat="42.090653490524794" lon="-1.3641204861093579"><ele>535.0</ele><time>2026-03-30T17:11:01Z</time></trkpt><trkpt lat="42.09076237752024" lon="-1.3642079397800755"><ele>535.0</ele><time>2026-03-30T17:11:02Z</time></trkpt><trkpt lat="42.090858092884474" lon="-1.3642759409431497"><ele>535.0</ele><time>2026-03-30T17:11:03Z</time></trkpt><trkpt lat="42.09096295045866" lon="-1.3643141115174497"><ele>535.0</ele><time>2026-03-30T17:11:04Z</time></trkpt><trkpt lat="42.09105430007043" lon="-1.3643169339112646"><ele>535.0</ele><time>2026-03-30T17:11:05Z</time></trkpt><trkpt lat="42.0911544293458" lon="-1.3642407979244087"><ele>535.0</ele><time>2026-03-30T17:11:06Z</time></trkpt><trkpt lat="42.09127503178415" lon="-1.3641883768748473"><ele>535.0</ele><time>2026-03-30T17:11:07Z</time></trkpt><trkpt lat="42.09141130238885" lon="-1.3641291192740823"><ele>535.0</ele><time>2026-03-30T17:11:08Z</time></trkpt><trkpt lat="42.09155580505385" lon="-1.3640883960337506"><ele>535.0</ele><time>2026-03-30T17:11:09Z</time></trkpt><trkpt lat="42.09169565618432" lon="-1.3640192425856494"><ele>535.0</ele><time>2026-03-30T17:11:10Z</time></trkpt><trkpt lat="42.09183234042195" lon="-1.3639458197385126"><ele>535.3333333333334</ele><time>2026-03-30T17:11:11Z</time></trkpt><trkpt lat="42.091981693193105" lon="-1.3638850097292834"><ele>535.6666666666666</ele><time>2026-03-30T17:11:12Z</time></trkpt><trkpt lat="42.0921366411392" lon="-1.363836125047999"><ele>536.0</ele><time>2026-03-30T17:11:13Z</time></trkpt><trkpt lat="42.0922915581705" lon="-1.363789636038993"><ele>534.6666666666666</ele><time>2026-03-30T17:11:14Z</time></trkpt><trkpt lat="42.092447823430085" lon="-1.3637256753147957"><ele>533.3333333333334</ele><time>2026-03-30T17:11:15Z</time></trkpt><trkpt lat="42.09260278792761" lon="-1.3636560387222039"><ele>532.0</ele><time>2026-03-30T17:11:16Z</time></trkpt><trkpt lat="42.09276134965668" lon="-1.3635905667139299"><ele>532.0</ele><time>2026-03-30T17:11:17Z</time></trkpt><trkpt lat="42.09293205824944" lon="-1.3635204003746118"><ele>532.0</ele><time>2026-03-30T17:11:18Z</time></trkpt><trkpt lat="42.093104006310654" lon="-1.3634530195143846"><ele>532.0</ele><time>2026-03-30T17:11:19Z</time></trkpt><trkpt lat="42.093255306623334" lon="-1.363392515286092"><ele>532.6666666666667</ele><time>2026-03-30T17:11:20Z</time></trkpt><trkpt lat="42.09342784666061" lon="-1.3633425812542679"><ele>533.3333333333334</ele><time>2026-03-30T17:11:21Z</time></trkpt><trkpt lat="42.0935876973805" lon="-1.3632562245290303"><ele>534.0</ele><time>2026-03-30T17:11:22Z</time></trkpt><trkpt lat="42.0937686822036" lon="-1.3631845851622468"><ele>534.0</ele><time>2026-03-30T17:11:23Z</time></trkpt><trkpt lat="42.09391153321937" lon="-1.3631301683467116"><ele>534.0</ele><time>2026-03-30T17:11:24Z</time></trkpt><trkpt lat="42.09404928374602" lon="-1.3630680584869599"><ele>534.0</ele><time>2026-03-30T17:11:25Z</time></trkpt><trkpt lat="42.094212569964895" lon="-1.3630099207975186"><ele>535.3333333333334</ele><time>2026-03-30T17:11:26Z</time></trkpt><trkpt lat="42.09438637798322" lon="-1.3629542792137743"><ele>536.6666666666667</ele><time>2026-03-30T17:11:27Z</time></trkpt><trkpt lat="42.0945511241674" lon="-1.3628808732079045"><ele>538.0</ele><time>2026-03-30T17:11:28Z</time></trkpt><trkpt lat="42.09470085808525" lon="-1.3628002615041452"><ele>538.0</ele><time>2026-03-30T17:11:29Z</time></trkpt><trkpt lat="42.09486754476749" lon="-1.3627279318171375"><ele>538.0</ele><time>2026-03-30T17:11:30Z</time></trkpt><trkpt lat="42.09503708088864" lon="-1.3626727216659287"><ele>538.0</ele><time>2026-03-30T17:11:31Z</time></trkpt><trkpt lat="42.095208937810995" lon="-1.36260709388887"><ele>539.3333333333334</ele><time>2026-03-30T17:11:32Z</time></trkpt><trkpt lat="42.095376402660754" lon="-1.3625351552462193"><ele>540.6666666666666</ele><time>2026-03-30T17:11:33Z</time></trkpt><trkpt lat="42.0955423760303" lon="-1.3624699637301538"><ele>542.0</ele><time>2026-03-30T17:11:34Z</time></trkpt><trkpt lat="42.09571068795226" lon="-1.3624117885763911"><ele>542.0</ele><time>2026-03-30T17:11:35Z</time></trkpt><trkpt lat="42.095868314986696" lon="-1.3623488132579642"><ele>542.0</ele><time>2026-03-30T17:11:36Z</time></trkpt><trkpt lat="42.09603860695241" lon="-1.362291973071868"><ele>542.0</ele><time>2026-03-30T17:11:37Z</time></trkpt><trkpt lat="42.09618189407953" lon="-1.3622120567122311"><ele>542.0</ele><time>2026-03-30T17:11:38Z</time></trkpt><trkpt lat="42.09632111660632" lon="-1.3621588639017332"><ele>542.0</ele><time>2026-03-30T17:11:39Z</time></trkpt><trkpt lat="42.09649938709551" lon="-1.3620897902970501"><ele>542.0</ele><time>2026-03-30T17:11:40Z</time></trkpt><trkpt lat="42.09666562305393" lon="-1.3620192310058987"><ele>542.0</ele><time>2026-03-30T17:11:41Z</time></trkpt><trkpt lat="42.09684194390986" lon="-1.3619512905810829"><ele>542.0</ele><time>2026-03-30T17:11:42Z</time></trkpt><trkpt lat="42.097008530969326" lon="-1.3618881660228814"><ele>542.0</ele><time>2026-03-30T17:11:43Z</time></trkpt><trkpt lat="42.09716150074237" lon="-1.3618296785931745"><ele>542.0</ele><time>2026-03-30T17:11:44Z</time></trkpt><trkpt lat="42.09729197300593" lon="-1.3617723152210335"><ele>542.0</ele><time>2026-03-30T17:11:45Z</time></trkpt><trkpt lat="42.09741012816561" lon="-1.361722292156134"><ele>542.0</ele><time>2026-03-30T17:11:46Z</time></trkpt><trkpt lat="42.097525281886504" lon="-1.361698388105425"><ele>542.0</ele><time>2026-03-30T17:11:47Z</time></trkpt><trkpt lat="42.09764269689263" lon="-1.361694418577779"><ele>542.25</ele><time>2026-03-30T17:11:48Z</time></trkpt><trkpt lat="42.097767268682006" lon="-1.3617130758328788"><ele>542.5</ele><time>2026-03-30T17:11:49Z</time></trkpt><trkpt lat="42.097904866446385" lon="-1.3617415549929348"><ele>542.75</ele><time>2026-03-30T17:11:50Z</time></trkpt><trkpt lat="42.09804198673304" lon="-1.3617610151283652"><ele>543.0</ele><time>2026-03-30T17:11:51Z</time></trkpt><trkpt lat="42.098174942774406" lon="-1.361794294046495"><ele>542.5</ele><time>2026-03-30T17:11:52Z</time></trkpt><trkpt lat="42.09830641284773" lon="-1.3617996534141055"><ele>542.0</ele><time>2026-03-30T17:11:53Z</time></trkpt><trkpt lat="42.098435160334134" lon="-1.3618117337916453"><ele>541.5</ele><time>2026-03-30T17:11:54Z</time></trkpt><trkpt lat="42.098567220253315" lon="-1.361820736843769"><ele>541.0</ele><time>2026-03-30T17:11:55Z</time></trkpt><trkpt lat="42.09870249533668" lon="-1.3618505166133912"><ele>541.0</ele><time>2026-03-30T17:11:56Z</time></trkpt><trkpt lat="42.098848838754556" lon="-1.3618422539411403"><ele>541.0</ele><time>2026-03-30T17:11:57Z</time></trkpt><trkpt lat="42.098998112609436" lon="-1.3618576770227577"><ele>541.0</ele><time>2026-03-30T17:11:58Z</time></trkpt><trkpt lat="42.09915935732968" lon="-1.3618756818791995"><ele>540.3333333333334</ele><time>2026-03-30T17:11:59Z</time></trkpt><trkpt lat="42.09931471505774" lon="-1.3619081045178087"><ele>539.6666666666666</ele><time>2026-03-30T17:12:00Z</time></trkpt><trkpt lat="42.09946996316638" lon="-1.3619128299158902"><ele>539.0</ele><time>2026-03-30T17:12:01Z</time></trkpt><trkpt lat="42.099629787061424" lon="-1.3619198965418855"><ele>539.0</ele><time>2026-03-30T17:12:02Z</time></trkpt><trkpt lat="42.099784459361445" lon="-1.3619437824162663"><ele>539.0</ele><time>2026-03-30T17:12:03Z</time></trkpt><trkpt lat="42.099940472684175" lon="-1.3619663636559134"><ele>539.0</ele><time>2026-03-30T17:12:04Z</time></trkpt><trkpt lat="42.10010174209089" lon="-1.3619880545903105"><ele>539.3333333333333</ele><time>2026-03-30T17:12:05Z</time></trkpt><trkpt lat="42.100262313891456" lon="-1.3620017070003718"><ele>539.6666666666666</ele><time>2026-03-30T17:12:06Z</time></trkpt><trkpt lat="42.100424309069076" lon="-1.362015829065688"><ele>540.0</ele><time>2026-03-30T17:12:07Z</time></trkpt><trkpt lat="42.100566417570036" lon="-1.3620293912703727"><ele>540.0</ele><time>2026-03-30T17:12:08Z</time></trkpt><trkpt lat="42.10066992499071" lon="-1.3620407754925683"><ele>540.0</ele><time>2026-03-30T17:12:09Z</time></trkpt><trkpt lat="42.100750785090185" lon="-1.3620604865472292"><ele>540.0</ele><time>2026-03-30T17:12:10Z</time></trkpt><trkpt lat="42.10082001637661" lon="-1.3620628003356605"><ele>540.0</ele><time>2026-03-30T17:12:11Z</time></trkpt><trkpt lat="42.10091434138897" lon="-1.3620718031000474"><ele>540.0</ele><time>2026-03-30T17:12:13Z</time></trkpt><trkpt lat="42.1007920488928" lon="-1.3620643170324138"><ele>540.6</ele><time>2026-03-30T17:14:45Z</time></trkpt><trkpt lat="42.100854150267686" lon="-1.3620439144438101"><ele>541.2</ele><time>2026-03-30T17:15:19Z</time></trkpt><trkpt lat="42.100927346057624" lon="-1.3620585819767494"><ele>541.8</ele><time>2026-03-30T17:15:24Z</time></trkpt><trkpt lat="42.10105945746457" lon="-1.3620767687256994"><ele>542.4</ele><time>2026-03-30T17:16:15Z</time></trkpt><trkpt lat="42.10118925423604" lon="-1.3621020925062746"><ele>543.0</ele><time>2026-03-30T17:16:16Z</time></trkpt><trkpt lat="42.10134829718262" lon="-1.362127997216031"><ele>543.0</ele><time>2026-03-30T17:16:17Z</time></trkpt><trkpt lat="42.10153507731587" lon="-1.3621525464252473"><ele>543.0</ele><time>2026-03-30T17:16:18Z</time></trkpt><trkpt lat="42.10174558509587" lon="-1.3621501706998698"><ele>543.0</ele><time>2026-03-30T17:16:19Z</time></trkpt><trkpt lat="42.101939864012536" lon="-1.362165476151096"><ele>543.6666666666666</ele><time>2026-03-30T17:16:20Z</time></trkpt><trkpt lat="42.10216051265754" lon="-1.3622084870194184"><ele>544.3333333333333</ele><time>2026-03-30T17:16:21Z</time></trkpt><trkpt lat="42.102369884424796" lon="-1.3622264840672176"><ele>545.0</ele><time>2026-03-30T17:16:22Z</time></trkpt><trkpt lat="42.10254375349822" lon="-1.3622434580362737"><ele>545.3333333333333</ele><time>2026-03-30T17:16:23Z</time></trkpt><trkpt lat="42.10271270588002" lon="-1.362261458563214"><ele>545.6666666666666</ele><time>2026-03-30T17:16:24Z</time></trkpt><trkpt lat="42.10287160931578" lon="-1.362275584467038"><ele>546.0</ele><time>2026-03-30T17:16:25Z</time></trkpt><trkpt lat="42.10304708746074" lon="-1.3622966823764224"><ele>546.0</ele><time>2026-03-30T17:16:26Z</time></trkpt><trkpt lat="42.10324043218615" lon="-1.3623172385511595"><ele>546.0</ele><time>2026-03-30T17:16:27Z</time></trkpt><trkpt lat="42.10343915475577" lon="-1.3623321889188"><ele>546.0</ele><time>2026-03-30T17:16:28Z</time></trkpt><trkpt lat="42.10362328379055" lon="-1.3623458079790118"><ele>546.25</ele><time>2026-03-30T17:16:29Z</time></trkpt><trkpt lat="42.1037728904466" lon="-1.3623563250453634"><ele>546.5</ele><time>2026-03-30T17:16:30Z</time></trkpt><trkpt lat="42.10390701453922" lon="-1.3623609506246162"><ele>546.75</ele><time>2026-03-30T17:16:31Z</time></trkpt><trkpt lat="42.10402756663671" lon="-1.3623783458063363"><ele>547.0</ele><time>2026-03-30T17:16:32Z</time></trkpt><trkpt lat="42.10414049815948" lon="-1.3624476304999114"><ele>547.3333333333334</ele><time>2026-03-30T17:16:33Z</time></trkpt><trkpt lat="42.10426374101039" lon="-1.3625241877374448"><ele>547.6666666666666</ele><time>2026-03-30T17:16:34Z</time></trkpt><trkpt lat="42.10438781524845" lon="-1.362670023055614"><ele>548.0</ele><time>2026-03-30T17:16:35Z</time></trkpt><trkpt lat="42.10453129923318" lon="-1.3628624911909135"><ele>549.5</ele><time>2026-03-30T17:16:36Z</time></trkpt><trkpt lat="42.10471525746093" lon="-1.3630567654929964"><ele>551.0</ele><time>2026-03-30T17:16:37Z</time></trkpt><trkpt lat="42.10488624027038" lon="-1.3632677684799848"><ele>551.3333333333333</ele><time>2026-03-30T17:16:38Z</time></trkpt><trkpt lat="42.10505275273821" lon="-1.3634410474834933"><ele>551.6666666666666</ele><time>2026-03-30T17:16:39Z</time></trkpt><trkpt lat="42.10521033777834" lon="-1.363604470285768"><ele>552.0</ele><time>2026-03-30T17:16:40Z</time></trkpt><trkpt lat="42.1054005076001" lon="-1.363735590078837"><ele>552.0</ele><time>2026-03-30T17:16:41Z</time></trkpt><trkpt lat="42.10558870056692" lon="-1.3638948140379683"><ele>552.0</ele><time>2026-03-30T17:16:42Z</time></trkpt><trkpt lat="42.1057952614013" lon="-1.3640469688366985"><ele>552.0</ele><time>2026-03-30T17:16:43Z</time></trkpt><trkpt lat="42.1060010251374" lon="-1.3642137826398095"><ele>552.0</ele><time>2026-03-30T17:16:44Z</time></trkpt><trkpt lat="42.1062186501544" lon="-1.3643579361105538"><ele>552.0</ele><time>2026-03-30T17:16:45Z</time></trkpt><trkpt lat="42.10641993318515" lon="-1.364509348737652"><ele>552.0</ele><time>2026-03-30T17:16:46Z</time></trkpt><trkpt lat="42.106604209550746" lon="-1.3646458734628628"><ele>552.0</ele><time>2026-03-30T17:16:47Z</time></trkpt><trkpt lat="42.10677194738926" lon="-1.364766604705638"><ele>552.25</ele><time>2026-03-30T17:16:48Z</time></trkpt><trkpt lat="42.106915014515536" lon="-1.3648688001502078"><ele>552.5</ele><time>2026-03-30T17:16:49Z</time></trkpt><trkpt lat="42.107041568850505" lon="-1.3649823152047782"><ele>552.75</ele><time>2026-03-30T17:16:50Z</time></trkpt><trkpt lat="42.107159576406715" lon="-1.3650386086093096"><ele>553.0</ele><time>2026-03-30T17:16:51Z</time></trkpt><trkpt lat="42.10721105255047" lon="-1.3650990846716686"><ele>553.0</ele><time>2026-03-30T17:16:52Z</time></trkpt><trkpt lat="42.10731722862643" lon="-1.365171443576657"><ele>553.0</ele><time>2026-03-30T17:16:54Z</time></trkpt><trkpt lat="42.10732278033664" lon="-1.3653717155622767"><ele>553.0</ele><time>2026-03-30T17:16:56Z</time></trkpt><trkpt lat="42.10729575837176" lon="-1.3655304946924203"><ele>553.0</ele><time>2026-03-30T17:16:57Z</time></trkpt><trkpt lat="42.10723503917372" lon="-1.3656756879430614"><ele>553.0</ele><time>2026-03-30T17:16:58Z</time></trkpt><trkpt lat="42.10717828311761" lon="-1.3658600277729955"><ele>553.0</ele><time>2026-03-30T17:16:59Z</time></trkpt><trkpt lat="42.10712105638733" lon="-1.3660647743065457"><ele>553.0</ele><time>2026-03-30T17:17:00Z</time></trkpt><trkpt lat="42.10704652390959" lon="-1.3662702001167815"><ele>553.3333333333334</ele><time>2026-03-30T17:17:01Z</time></trkpt><trkpt lat="42.106968145899366" lon="-1.3664972066923256"><ele>553.6666666666666</ele><time>2026-03-30T17:17:02Z</time></trkpt><trkpt lat="42.10690422181996" lon="-1.3667281639452884"><ele>554.0</ele><time>2026-03-30T17:17:03Z</time></trkpt><trkpt lat="42.106836915234105" lon="-1.3669373569485581"><ele>554.0</ele><time>2026-03-30T17:17:04Z</time></trkpt><trkpt lat="42.10676382047407" lon="-1.3671455328954638"><ele>554.0</ele><time>2026-03-30T17:17:05Z</time></trkpt><trkpt lat="42.106719870174025" lon="-1.3673459558267114"><ele>554.0</ele><time>2026-03-30T17:17:06Z</time></trkpt><trkpt lat="42.1066658423695" lon="-1.3675313480234852"><ele>553.75</ele><time>2026-03-30T17:17:07Z</time></trkpt><trkpt lat="42.10659698715469" lon="-1.3677089170262522"><ele>553.5</ele><time>2026-03-30T17:17:08Z</time></trkpt><trkpt lat="42.10652030122926" lon="-1.3678869251338723"><ele>553.25</ele><time>2026-03-30T17:17:09Z</time></trkpt><trkpt lat="42.10645836743298" lon="-1.3680378388582635"><ele>553.0</ele><time>2026-03-30T17:17:10Z</time></trkpt><trkpt lat="42.106402661362786" lon="-1.368163994152824"><ele>551.0</ele><time>2026-03-30T17:17:11Z</time></trkpt><trkpt lat="42.10635004486503" lon="-1.3682924480237217"><ele>549.0</ele><time>2026-03-30T17:17:12Z</time></trkpt><trkpt lat="42.10625836005592" lon="-1.368380030242675"><ele>547.0</ele><time>2026-03-30T17:17:13Z</time></trkpt><trkpt lat="42.10614812469292" lon="-1.3684123997323927"><ele>545.0</ele><time>2026-03-30T17:17:14Z</time></trkpt><trkpt lat="42.10602561333775" lon="-1.368447866066451"><ele>545.0</ele><time>2026-03-30T17:17:15Z</time></trkpt><trkpt lat="42.10590923293531" lon="-1.3684788780121238"><ele>545.0</ele><time>2026-03-30T17:17:16Z</time></trkpt><trkpt lat="42.105816207811635" lon="-1.368518316528638"><ele>545.0</ele><time>2026-03-30T17:17:17Z</time></trkpt><trkpt lat="42.10574035322954" lon="-1.3686147982455208"><ele>545.0</ele><time>2026-03-30T17:17:18Z</time></trkpt><trkpt lat="42.105647317242344" lon="-1.3687123016253353"><ele>545.0</ele><time>2026-03-30T17:17:19Z</time></trkpt><trkpt lat="42.105577582647314" lon="-1.3688556131992262"><ele>543.2</ele><time>2026-03-30T17:17:20Z</time></trkpt><trkpt lat="42.10553205201704" lon="-1.36897737690359"><ele>541.4</ele><time>2026-03-30T17:17:21Z</time></trkpt><trkpt lat="42.10551027159179" lon="-1.3691043523720943"><ele>539.6</ele><time>2026-03-30T17:17:22Z</time></trkpt><trkpt lat="42.105488335201876" lon="-1.3692379141681392"><ele>537.8</ele><time>2026-03-30T17:17:23Z</time></trkpt><trkpt lat="42.10542941753971" lon="-1.3693669920720324"><ele>536.0</ele><time>2026-03-30T17:17:24Z</time></trkpt><trkpt lat="42.10534833312114" lon="-1.3694786146864073"><ele>536.0</ele><time>2026-03-30T17:17:25Z</time></trkpt><trkpt lat="42.10526831803841" lon="-1.3695719579967107"><ele>536.0</ele><time>2026-03-30T17:17:26Z</time></trkpt><trkpt lat="42.105202415040296" lon="-1.3696587512703862"><ele>536.0</ele><time>2026-03-30T17:17:27Z</time></trkpt><trkpt lat="42.10515664803701" lon="-1.3697547845558986"><ele>536.0</ele><time>2026-03-30T17:17:28Z</time></trkpt><trkpt lat="42.105150237676334" lon="-1.3698482926548918"><ele>536.0</ele><time>2026-03-30T17:17:29Z</time></trkpt><trkpt lat="42.105160990952406" lon="-1.3699670489259987"><ele>536.0</ele><time>2026-03-30T17:17:30Z</time></trkpt><trkpt lat="42.10521818088949" lon="-1.3700687534478277"><ele>536.5</ele><time>2026-03-30T17:17:31Z</time></trkpt><trkpt lat="42.105264410220045" lon="-1.3702157212025843"><ele>537.0</ele><time>2026-03-30T17:17:32Z</time></trkpt><trkpt lat="42.105322577360134" lon="-1.370356129047347"><ele>537.5</ele><time>2026-03-30T17:17:33Z</time></trkpt><trkpt lat="42.10536383474903" lon="-1.3705018009556282"><ele>538.0</ele><time>2026-03-30T17:17:34Z</time></trkpt><trkpt lat="42.10541271736924" lon="-1.370642375078934"><ele>535.4</ele><time>2026-03-30T17:17:35Z</time></trkpt><trkpt lat="42.10545209412127" lon="-1.3707672140130485"><ele>532.8</ele><time>2026-03-30T17:17:36Z</time></trkpt><trkpt lat="42.10550470161698" lon="-1.370874685666582"><ele>530.2</ele><time>2026-03-30T17:17:37Z</time></trkpt><trkpt lat="42.10557325080014" lon="-1.3709652729817203"><ele>527.6</ele><time>2026-03-30T17:17:38Z</time></trkpt><trkpt lat="42.105655756432654" lon="-1.371008706271806"><ele>525.0</ele><time>2026-03-30T17:17:39Z</time></trkpt><trkpt lat="42.10573895524243" lon="-1.3710463390901475"><ele>528.8</ele><time>2026-03-30T17:17:40Z</time></trkpt><trkpt lat="42.10583013826357" lon="-1.3710849809626284"><ele>532.6</ele><time>2026-03-30T17:17:41Z</time></trkpt><trkpt lat="42.10592233990644" lon="-1.3711187193070586"><ele>536.4</ele><time>2026-03-30T17:17:42Z</time></trkpt><trkpt lat="42.10601904791569" lon="-1.3711520311198366"><ele>540.2</ele><time>2026-03-30T17:17:43Z</time></trkpt><trkpt lat="42.10612025442568" lon="-1.3711714844630933"><ele>544.0</ele><time>2026-03-30T17:17:44Z</time></trkpt><trkpt lat="42.106219386739056" lon="-1.3711764508249915"><ele>544.0</ele><time>2026-03-30T17:17:45Z</time></trkpt><trkpt lat="42.10631741859448" lon="-1.3711569903364083"><ele>544.0</ele><time>2026-03-30T17:17:46Z</time></trkpt><trkpt lat="42.10641101862614" lon="-1.371125327898694"><ele>544.0</ele><time>2026-03-30T17:17:47Z</time></trkpt><trkpt lat="42.10650555867079" lon="-1.3710777133884369"><ele>544.0</ele><time>2026-03-30T17:17:48Z</time></trkpt><trkpt lat="42.10662291722603" lon="-1.37102905345752"><ele>544.0</ele><time>2026-03-30T17:17:49Z</time></trkpt><trkpt lat="42.106749775408154" lon="-1.3709785463711732"><ele>543.4</ele><time>2026-03-30T17:17:50Z</time></trkpt><trkpt lat="42.106846990569395" lon="-1.3709126580881996"><ele>542.8</ele><time>2026-03-30T17:17:51Z</time></trkpt><trkpt lat="42.106919247663605" lon="-1.3707922682169422"><ele>542.2</ele><time>2026-03-30T17:17:52Z</time></trkpt><trkpt lat="42.10698546858346" lon="-1.370704315008245"><ele>541.6</ele><time>2026-03-30T17:17:53Z</time></trkpt><trkpt lat="42.10705158579602" lon="-1.3706234185625616"><ele>541.0</ele><time>2026-03-30T17:17:54Z</time></trkpt><trkpt lat="42.10714202819744" lon="-1.3705861550387275"><ele>541.0</ele><time>2026-03-30T17:17:55Z</time></trkpt><trkpt lat="42.10725009529838" lon="-1.3705861762344411"><ele>541.0</ele><time>2026-03-30T17:17:56Z</time></trkpt><trkpt lat="42.10737835098102" lon="-1.370635854796502"><ele>541.0</ele><time>2026-03-30T17:17:57Z</time></trkpt><trkpt lat="42.107510906890866" lon="-1.3707187617883811"><ele>541.0</ele><time>2026-03-30T17:17:58Z</time></trkpt><trkpt lat="42.107623417170025" lon="-1.3707594781100851"><ele>539.0</ele><time>2026-03-30T17:17:59Z</time></trkpt><trkpt lat="42.10773897472097" lon="-1.3707636548881017"><ele>537.0</ele><time>2026-03-30T17:18:00Z</time></trkpt><trkpt lat="42.10786718646265" lon="-1.3707603030888522"><ele>535.0</ele><time>2026-03-30T17:18:01Z</time></trkpt><trkpt lat="42.10798467732764" lon="-1.3707217159085563"><ele>533.0</ele><time>2026-03-30T17:18:02Z</time></trkpt><trkpt lat="42.108100073219155" lon="-1.3707192521579024"><ele>533.0</ele><time>2026-03-30T17:18:03Z</time></trkpt><trkpt lat="42.10820938114999" lon="-1.3707765775293244"><ele>533.0</ele><time>2026-03-30T17:18:04Z</time></trkpt><trkpt lat="42.10832804252037" lon="-1.3709190587374003"><ele>533.0</ele><time>2026-03-30T17:18:05Z</time></trkpt><trkpt lat="42.108471212642996" lon="-1.3710025278310638"><ele>533.0</ele><time>2026-03-30T17:18:06Z</time></trkpt><trkpt lat="42.1086211886661" lon="-1.3710692433409903"><ele>533.5</ele><time>2026-03-30T17:18:07Z</time></trkpt><trkpt lat="42.108758847521905" lon="-1.37108286280744"><ele>534.0</ele><time>2026-03-30T17:18:08Z</time></trkpt><trkpt lat="42.10887124348885" lon="-1.3711067333492806"><ele>534.5</ele><time>2026-03-30T17:18:09Z</time></trkpt><trkpt lat="42.10896600164751" lon="-1.3711478940290234"><ele>535.0</ele><time>2026-03-30T17:18:10Z</time></trkpt><trkpt lat="42.10905101246526" lon="-1.371226919447757"><ele>535.25</ele><time>2026-03-30T17:18:11Z</time></trkpt><trkpt lat="42.10913158408042" lon="-1.3713560377024008"><ele>535.5</ele><time>2026-03-30T17:18:12Z</time></trkpt><trkpt lat="42.10920069608841" lon="-1.3715431262167959"><ele>535.75</ele><time>2026-03-30T17:18:13Z</time></trkpt><trkpt lat="42.10927581530789" lon="-1.3716881691146274"><ele>536.0</ele><time>2026-03-30T17:18:14Z</time></trkpt><trkpt lat="42.10934821652999" lon="-1.371812509944361"><ele>535.25</ele><time>2026-03-30T17:18:15Z</time></trkpt><trkpt lat="42.109404922502044" lon="-1.3719294779834503"><ele>534.5</ele><time>2026-03-30T17:18:16Z</time></trkpt><trkpt lat="42.10943258612423" lon="-1.3720830353888525"><ele>533.75</ele><time>2026-03-30T17:18:17Z</time></trkpt><trkpt lat="42.109472579730856" lon="-1.3722415995045034"><ele>533.0</ele><time>2026-03-30T17:18:18Z</time></trkpt><trkpt lat="42.10953206764753" lon="-1.372395312629474"><ele>533.0</ele><time>2026-03-30T17:18:19Z</time></trkpt><trkpt lat="42.10963215627907" lon="-1.3725229210377516"><ele>533.0</ele><time>2026-03-30T17:18:20Z</time></trkpt><trkpt lat="42.109730476345334" lon="-1.3726586296766266"><ele>533.0</ele><time>2026-03-30T17:18:21Z</time></trkpt><trkpt lat="42.1098105387485" lon="-1.3728028661138107"><ele>533.0</ele><time>2026-03-30T17:18:22Z</time></trkpt><trkpt lat="42.10989664021712" lon="-1.372917359308977"><ele>531.75</ele><time>2026-03-30T17:18:23Z</time></trkpt><trkpt lat="42.109992766060934" lon="-1.3730202780473633"><ele>530.5</ele><time>2026-03-30T17:18:24Z</time></trkpt><trkpt lat="42.11010827337194" lon="-1.3731006248927424"><ele>529.25</ele><time>2026-03-30T17:18:25Z</time></trkpt><trkpt lat="42.11024984619471" lon="-1.3731005179166476"><ele>528.0</ele><time>2026-03-30T17:18:26Z</time></trkpt><trkpt lat="42.11039268150008" lon="-1.3731249355823665"><ele>528.0</ele><time>2026-03-30T17:18:27Z</time></trkpt><trkpt lat="42.11052361155291" lon="-1.373160230575552"><ele>528.0</ele><time>2026-03-30T17:18:28Z</time></trkpt><trkpt lat="42.110645232081296" lon="-1.3732194829464017"><ele>528.0</ele><time>2026-03-30T17:18:29Z</time></trkpt><trkpt lat="42.11077855071033" lon="-1.3732785932918623"><ele>528.0</ele><time>2026-03-30T17:18:30Z</time></trkpt><trkpt lat="42.11091304003714" lon="-1.3733591481360858"><ele>522.6666666666666</ele><time>2026-03-30T17:18:31Z</time></trkpt><trkpt lat="42.1110424492814" lon="-1.3734705519057775"><ele>517.3333333333333</ele><time>2026-03-30T17:18:32Z</time></trkpt><trkpt lat="42.11117528059944" lon="-1.3735993781769478"><ele>512.0</ele><time>2026-03-30T17:18:33Z</time></trkpt><trkpt lat="42.111302486746695" lon="-1.3737248644336446"><ele>509.25</ele><time>2026-03-30T17:18:34Z</time></trkpt><trkpt lat="42.11142024978997" lon="-1.373860983004215"><ele>506.5</ele><time>2026-03-30T17:18:35Z</time></trkpt><trkpt lat="42.11152206462045" lon="-1.373993484990855"><ele>503.75</ele><time>2026-03-30T17:18:36Z</time></trkpt><trkpt lat="42.111629198588865" lon="-1.3741025189549687"><ele>501.0</ele><time>2026-03-30T17:18:37Z</time></trkpt><trkpt lat="42.111702023430134" lon="-1.3742413819057828"><ele>501.0</ele><time>2026-03-30T17:18:38Z</time></trkpt><trkpt lat="42.111768014780154" lon="-1.374367094836997"><ele>501.0</ele><time>2026-03-30T17:18:39Z</time></trkpt><trkpt lat="42.11182430204965" lon="-1.3745321109678659"><ele>501.0</ele><time>2026-03-30T17:18:40Z</time></trkpt><trkpt lat="42.11187921756636" lon="-1.374726150458353"><ele>501.0</ele><time>2026-03-30T17:18:41Z</time></trkpt><trkpt lat="42.11191809035629" lon="-1.3749045934936597"><ele>502.1666666666667</ele><time>2026-03-30T17:18:42Z</time></trkpt><trkpt lat="42.111953825413615" lon="-1.3750462440568338"><ele>503.33333333333337</ele><time>2026-03-30T17:18:43Z</time></trkpt><trkpt lat="42.11196739628228" lon="-1.3751738924674426"><ele>504.5</ele><time>2026-03-30T17:18:44Z</time></trkpt><trkpt lat="42.11195923064129" lon="-1.3752789313358362"><ele>505.6666666666667</ele><time>2026-03-30T17:18:45Z</time></trkpt><trkpt lat="42.111939886284" lon="-1.3753617246362533"><ele>506.83333333333337</ele><time>2026-03-30T17:18:46Z</time></trkpt><trkpt lat="42.11189900966627" lon="-1.3754429672578872"><ele>508.0</ele><time>2026-03-30T17:18:47Z</time></trkpt><trkpt lat="42.11183708406577" lon="-1.3755214586470563"><ele>510.50000000000006</ele><time>2026-03-30T17:18:48Z</time></trkpt><trkpt lat="42.11176569573474" lon="-1.3755832418281364"><ele>513.0</ele><time>2026-03-30T17:18:49Z</time></trkpt><trkpt lat="42.111691925199914" lon="-1.3756373085087368"><ele>515.5</ele><time>2026-03-30T17:18:50Z</time></trkpt><trkpt lat="42.11162257021079" lon="-1.3756850158669807"><ele>518.0</ele><time>2026-03-30T17:18:51Z</time></trkpt><trkpt lat="42.11155854706127" lon="-1.375741671918329"><ele>520.5</ele><time>2026-03-30T17:18:52Z</time></trkpt><trkpt lat="42.111503773058566" lon="-1.3758134344158106"><ele>523.0</ele><time>2026-03-30T17:18:53Z</time></trkpt><trkpt lat="42.11145919619536" lon="-1.3758972658399722"><ele>523.0</ele><time>2026-03-30T17:18:54Z</time></trkpt><trkpt lat="42.11141601724042" lon="-1.3760053129852081"><ele>523.0</ele><time>2026-03-30T17:18:55Z</time></trkpt><trkpt lat="42.111375263036834" lon="-1.3761349015749376"><ele>523.0</ele><time>2026-03-30T17:18:56Z</time></trkpt><trkpt lat="42.11134269246282" lon="-1.376276071896506"><ele>523.0</ele><time>2026-03-30T17:18:57Z</time></trkpt><trkpt lat="42.11132662108454" lon="-1.3764201466848884"><ele>523.0</ele><time>2026-03-30T17:18:58Z</time></trkpt><trkpt lat="42.11130664657156" lon="-1.3765585803804383"><ele>518.0</ele><time>2026-03-30T17:18:59Z</time></trkpt><trkpt lat="42.111269218730065" lon="-1.376689572430132"><ele>513.0</ele><time>2026-03-30T17:19:00Z</time></trkpt><trkpt lat="42.11121031444844" lon="-1.3768235518337126"><ele>508.0</ele><time>2026-03-30T17:19:01Z</time></trkpt><trkpt lat="42.11112391267387" lon="-1.3769614962490002"><ele>503.0</ele><time>2026-03-30T17:19:02Z</time></trkpt><trkpt lat="42.11101026355201" lon="-1.3771257959570846"><ele>497.0</ele><time>2026-03-30T17:19:03Z</time></trkpt><trkpt lat="42.110915296584295" lon="-1.3773046588583657"><ele>491.0</ele><time>2026-03-30T17:19:04Z</time></trkpt><trkpt lat="42.11084332569943" lon="-1.3774886310869547"><ele>485.0</ele><time>2026-03-30T17:19:05Z</time></trkpt><trkpt lat="42.11078235261317" lon="-1.3776850861181493"><ele>485.75</ele><time>2026-03-30T17:19:06Z</time></trkpt><trkpt lat="42.1107380280718" lon="-1.3778489097469182"><ele>486.5</ele><time>2026-03-30T17:19:07Z</time></trkpt><trkpt lat="42.11068866334733" lon="-1.3780035803666388"><ele>487.25</ele><time>2026-03-30T17:19:08Z</time></trkpt><trkpt lat="42.11060931823406" lon="-1.3781608429500871"><ele>488.0</ele><time>2026-03-30T17:19:09Z</time></trkpt><trkpt lat="42.11051002242543" lon="-1.3783074761252796"><ele>488.0</ele><time>2026-03-30T17:19:10Z</time></trkpt><trkpt lat="42.11040532160477" lon="-1.3784329584050012"><ele>488.0</ele><time>2026-03-30T17:19:11Z</time></trkpt><trkpt lat="42.11033092200283" lon="-1.3785696874745645"><ele>488.0</ele><time>2026-03-30T17:19:12Z</time></trkpt><trkpt lat="42.11029533828326" lon="-1.3787279902185963"><ele>488.0</ele><time>2026-03-30T17:19:13Z</time></trkpt><trkpt lat="42.11022813370371" lon="-1.378850698924813"><ele>483.75</ele><time>2026-03-30T17:19:14Z</time></trkpt><trkpt lat="42.11015167882943" lon="-1.3789301482623748"><ele>479.5</ele><time>2026-03-30T17:19:15Z</time></trkpt><trkpt lat="42.110053548972985" lon="-1.3789814412075818"><ele>475.25</ele><time>2026-03-30T17:19:16Z</time></trkpt><trkpt lat="42.109931789629265" lon="-1.3789647785055172"><ele>471.0</ele><time>2026-03-30T17:19:17Z</time></trkpt><trkpt lat="42.109786378692" lon="-1.3789537943804793"><ele>471.0</ele><time>2026-03-30T17:19:18Z</time></trkpt><trkpt lat="42.109655970213055" lon="-1.3789527151318877"><ele>471.0</ele><time>2026-03-30T17:19:19Z</time></trkpt><trkpt lat="42.10955144339901" lon="-1.3790359340702867"><ele>471.0</ele><time>2026-03-30T17:19:20Z</time></trkpt><trkpt lat="42.10942287619225" lon="-1.37911955033202"><ele>471.0</ele><time>2026-03-30T17:19:21Z</time></trkpt><trkpt lat="42.10928708472075" lon="-1.3792098506458865"><ele>471.0</ele><time>2026-03-30T17:19:22Z</time></trkpt><trkpt lat="42.10919334818842" lon="-1.3793501353348627"><ele>471.0</ele><time>2026-03-30T17:19:23Z</time></trkpt><trkpt lat="42.10912441266734" lon="-1.3794828587994457"><ele>471.0</ele><time>2026-03-30T17:19:24Z</time></trkpt><trkpt lat="42.10906218779628" lon="-1.3796311389419533"><ele>471.0</ele><time>2026-03-30T17:19:25Z</time></trkpt><trkpt lat="42.10898472515247" lon="-1.3797649209794618"><ele>469.5</ele><time>2026-03-30T17:19:26Z</time></trkpt><trkpt lat="42.108929829887586" lon="-1.379870891289156"><ele>468.0</ele><time>2026-03-30T17:19:27Z</time></trkpt><trkpt lat="42.10886367986397" lon="-1.3799721895327304"><ele>466.5</ele><time>2026-03-30T17:19:28Z</time></trkpt><trkpt lat="42.10873948955746" lon="-1.3800439483092095"><ele>465.0</ele><time>2026-03-30T17:19:29Z</time></trkpt><trkpt lat="42.108572894507155" lon="-1.3800803130504127"><ele>465.0</ele><time>2026-03-30T17:19:30Z</time></trkpt><trkpt lat="42.10840184768592" lon="-1.3801652378110798"><ele>465.0</ele><time>2026-03-30T17:19:31Z</time></trkpt><trkpt lat="42.108238908284854" lon="-1.3802476871454001"><ele>465.0</ele><time>2026-03-30T17:19:32Z</time></trkpt><trkpt lat="42.10808995269434" lon="-1.3803242441054187"><ele>465.0</ele><time>2026-03-30T17:19:33Z</time></trkpt><trkpt lat="42.107941448218305" lon="-1.3805081886634323"><ele>465.0</ele><time>2026-03-30T17:19:34Z</time></trkpt><trkpt lat="42.107778332821155" lon="-1.380626008481694"><ele>465.0</ele><time>2026-03-30T17:19:35Z</time></trkpt><trkpt lat="42.10763383678682" lon="-1.3807343056389445"><ele>461.66666666666663</ele><time>2026-03-30T17:19:36Z</time></trkpt><trkpt lat="42.10748071983038" lon="-1.380855059729159"><ele>458.3333333333333</ele><time>2026-03-30T17:19:37Z</time></trkpt><trkpt lat="42.10732427883827" lon="-1.3809148772980055"><ele>455.0</ele><time>2026-03-30T17:19:38Z</time></trkpt><trkpt lat="42.107169413189816" lon="-1.3809715997834227"><ele>455.0</ele><time>2026-03-30T17:19:39Z</time></trkpt><trkpt lat="42.10702903202037" lon="-1.3810862317147292"><ele>455.0</ele><time>2026-03-30T17:19:40Z</time></trkpt><trkpt lat="42.10689477322179" lon="-1.3812635765106636"><ele>455.0</ele><time>2026-03-30T17:19:41Z</time></trkpt><trkpt lat="42.106721384915595" lon="-1.381443089475301"><ele>451.0</ele><time>2026-03-30T17:19:42Z</time></trkpt><trkpt lat="42.106569863000104" lon="-1.3815780204390622"><ele>447.0</ele><time>2026-03-30T17:19:43Z</time></trkpt><trkpt lat="42.10643325730671" lon="-1.3816882568329258"><ele>443.0</ele><time>2026-03-30T17:19:44Z</time></trkpt><trkpt lat="42.10631695400002" lon="-1.381818589266723"><ele>443.0</ele><time>2026-03-30T17:19:45Z</time></trkpt><trkpt lat="42.10621175332912" lon="-1.3819298555499282"><ele>443.0</ele><time>2026-03-30T17:19:46Z</time></trkpt><trkpt lat="42.1061112977925" lon="-1.3820283211588529"><ele>443.0</ele><time>2026-03-30T17:19:47Z</time></trkpt><trkpt lat="42.105990050158326" lon="-1.3820897435217099"><ele>443.0</ele><time>2026-03-30T17:19:48Z</time></trkpt><trkpt lat="42.10586560060211" lon="-1.3821186102401888"><ele>443.0</ele><time>2026-03-30T17:19:49Z</time></trkpt><trkpt lat="42.10576324576527" lon="-1.3820708286044285"><ele>442.99999999999994</ele><time>2026-03-30T17:19:50Z</time></trkpt><trkpt lat="42.105646456158844" lon="-1.3820732542806646"><ele>442.99999999999994</ele><time>2026-03-30T17:19:51Z</time></trkpt><trkpt lat="42.105536027765616" lon="-1.3821125897327091"><ele>443.0</ele><time>2026-03-30T17:19:52Z</time></trkpt><trkpt lat="42.10552269160283" lon="-1.3821999229627475"><ele>443.0</ele><time>2026-03-30T17:19:53Z</time></trkpt><trkpt lat="42.105517382455396" lon="-1.382310912945549"><ele>441.5</ele><time>2026-03-30T17:19:54Z</time></trkpt><trkpt lat="42.105536876925434" lon="-1.3824284303742265"><ele>440.0</ele><time>2026-03-30T17:19:55Z</time></trkpt><trkpt lat="42.10555791090873" lon="-1.382623432648387"><ele>438.5</ele><time>2026-03-30T17:19:56Z</time></trkpt><trkpt lat="42.10558155217562" lon="-1.3828208589448125"><ele>437.0</ele><time>2026-03-30T17:19:57Z</time></trkpt><trkpt lat="42.10559034101672" lon="-1.383007640016243"><ele>436.25</ele><time>2026-03-30T17:19:58Z</time></trkpt><trkpt lat="42.10560548014157" lon="-1.3831609116173722"><ele>435.5</ele><time>2026-03-30T17:19:59Z</time></trkpt><trkpt lat="42.10562038309765" lon="-1.3833168840838004"><ele>434.75</ele><time>2026-03-30T17:20:00Z</time></trkpt><trkpt lat="42.10563106815821" lon="-1.3834704253663164"><ele>434.0</ele><time>2026-03-30T17:20:01Z</time></trkpt><trkpt lat="42.10563651798269" lon="-1.3836236369197579"><ele>434.0</ele><time>2026-03-30T17:20:02Z</time></trkpt><trkpt lat="42.10563903366461" lon="-1.3837893910989796"><ele>434.0</ele><time>2026-03-30T17:20:03Z</time></trkpt><trkpt lat="42.105656297001616" lon="-1.3839616914931243"><ele>434.0</ele><time>2026-03-30T17:20:04Z</time></trkpt><trkpt lat="42.10565760560497" lon="-1.3841293232865142"><ele>434.0</ele><time>2026-03-30T17:20:05Z</time></trkpt><trkpt lat="42.10564217328582" lon="-1.3842999523623116"><ele>432.75</ele><time>2026-03-30T17:20:06Z</time></trkpt><trkpt lat="42.10564369275239" lon="-1.3844825105445995"><ele>431.5</ele><time>2026-03-30T17:20:07Z</time></trkpt><trkpt lat="42.10564864970295" lon="-1.3846793034866232"><ele>430.25</ele><time>2026-03-30T17:20:08Z</time></trkpt><trkpt lat="42.10570380134194" lon="-1.3848761732418988"><ele>429.0</ele><time>2026-03-30T17:20:09Z</time></trkpt><trkpt lat="42.105775076095625" lon="-1.3851025798509329"><ele>427.0</ele><time>2026-03-30T17:20:10Z</time></trkpt><trkpt lat="42.10586238691542" lon="-1.385370283912524"><ele>425.0</ele><time>2026-03-30T17:20:11Z</time></trkpt><trkpt lat="42.1059450512283" lon="-1.3856453892004628"><ele>423.0</ele><time>2026-03-30T17:20:12Z</time></trkpt><trkpt lat="42.10602499934011" lon="-1.3859558535316896"><ele>422.0</ele><time>2026-03-30T17:20:13Z</time></trkpt><trkpt lat="42.10610126994842" lon="-1.3862110476866092"><ele>421.0</ele><time>2026-03-30T17:20:14Z</time></trkpt><trkpt lat="42.10616856637317" lon="-1.3864365724750554"><ele>420.0</ele><time>2026-03-30T17:20:15Z</time></trkpt><trkpt lat="42.10623682085687" lon="-1.3866579592011359"><ele>419.33333333333337</ele><time>2026-03-30T17:20:16Z</time></trkpt><trkpt lat="42.10631324443363" lon="-1.3868512924857381"><ele>418.6666666666667</ele><time>2026-03-30T17:20:17Z</time></trkpt><trkpt lat="42.10641732958023" lon="-1.3870332431725914"><ele>418.0</ele><time>2026-03-30T17:20:18Z</time></trkpt><trkpt lat="42.106554263351505" lon="-1.3872322203513896"><ele>418.0</ele><time>2026-03-30T17:20:19Z</time></trkpt><trkpt lat="42.106713883204534" lon="-1.3874562502686996"><ele>418.0</ele><time>2026-03-30T17:20:20Z</time></trkpt><trkpt lat="42.106866553857536" lon="-1.3876507139909573"><ele>418.0</ele><time>2026-03-30T17:20:21Z</time></trkpt><trkpt lat="42.10699704809113" lon="-1.3878383244815307"><ele>418.33333333333337</ele><time>2026-03-30T17:20:22Z</time></trkpt><trkpt lat="42.10710753000174" lon="-1.388011593649978"><ele>418.66666666666663</ele><time>2026-03-30T17:20:23Z</time></trkpt><trkpt lat="42.107220473067095" lon="-1.3881993052845856"><ele>419.0</ele><time>2026-03-30T17:20:24Z</time></trkpt><trkpt lat="42.107315472653895" lon="-1.3883405604459675"><ele>419.0</ele><time>2026-03-30T17:20:25Z</time></trkpt><trkpt lat="42.10739804637636" lon="-1.3884538490731002"><ele>419.0</ele><time>2026-03-30T17:20:26Z</time></trkpt><trkpt lat="42.107465382679194" lon="-1.3885559691484433"><ele>419.0</ele><time>2026-03-30T17:20:27Z</time></trkpt><trkpt lat="42.10755847603739" lon="-1.388649923640232"><ele>419.0</ele><time>2026-03-30T17:20:28Z</time></trkpt><trkpt lat="42.107626458587724" lon="-1.3887718925782064"><ele>419.0</ele><time>2026-03-30T17:20:29Z</time></trkpt><trkpt lat="42.10769873381738" lon="-1.3888745293000522"><ele>419.0</ele><time>2026-03-30T17:20:30Z</time></trkpt><trkpt lat="42.10774804781367" lon="-1.3889597778928924"><ele>419.0</ele><time>2026-03-30T17:20:31Z</time></trkpt><trkpt lat="42.10781657359826" lon="-1.3890624172912782"><ele>419.0</ele><time>2026-03-30T17:20:33Z</time></trkpt><trkpt lat="42.10787622452544" lon="-1.389150042633351"><ele>419.0</ele><time>2026-03-30T17:20:35Z</time></trkpt><trkpt lat="42.107948282257276" lon="-1.3892305845577664"><ele>419.0</ele><time>2026-03-30T17:26:48Z</time></trkpt><trkpt lat="42.108028893947925" lon="-1.3893577607976786"><ele>418.99999999999994</ele><time>2026-03-30T17:26:50Z</time></trkpt><trkpt lat="42.10807748031855" lon="-1.3894221540812253"><ele>419.0</ele><time>2026-03-30T17:26:51Z</time></trkpt><trkpt lat="42.108126233150934" lon="-1.389481781423815"><ele>419.0</ele><time>2026-03-30T17:26:52Z</time></trkpt><trkpt lat="42.10817147128492" lon="-1.389543366931751"><ele>419.0</ele><time>2026-03-30T17:26:53Z</time></trkpt><trkpt lat="42.10821895322131" lon="-1.3896063142347637"><ele>419.0</ele><time>2026-03-30T17:26:54Z</time></trkpt><trkpt lat="42.108277364428695" lon="-1.3897125696475874"><ele>418.99999999999994</ele><time>2026-03-30T17:26:56Z</time></trkpt><trkpt lat="42.108329523755614" lon="-1.3897988510404695"><ele>419.0</ele><time>2026-03-30T17:26:59Z</time></trkpt><trkpt lat="42.10839400279703" lon="-1.389892991005066"><ele>418.4</ele><time>2026-03-30T17:27:01Z</time></trkpt><trkpt lat="42.108466089711" lon="-1.390001646350487"><ele>417.79999999999995</ele><time>2026-03-30T17:27:03Z</time></trkpt><trkpt lat="42.10854355601471" lon="-1.3901220812428892"><ele>417.20000000000005</ele><time>2026-03-30T17:27:05Z</time></trkpt><trkpt lat="42.10860762382691" lon="-1.3902269051586993"><ele>416.6</ele><time>2026-03-30T17:27:07Z</time></trkpt><trkpt lat="42.1086587399865" lon="-1.390312447852601"><ele>416.0</ele><time>2026-03-30T17:27:09Z</time></trkpt><trkpt lat="42.108701847445246" lon="-1.3903853838320948"><ele>415.99999999999994</ele><time>2026-03-30T17:27:12Z</time></trkpt><trkpt lat="42.10874906328052" lon="-1.390465146898654"><ele>416.0</ele><time>2026-03-30T17:27:22Z</time></trkpt><trkpt lat="42.10879431132745" lon="-1.3905409081511548"><ele>416.0</ele><time>2026-03-30T17:27:23Z</time></trkpt><trkpt lat="42.10888572259875" lon="-1.3906899694711874"><ele>416.0</ele><time>2026-03-30T17:27:24Z</time></trkpt><trkpt lat="42.108926363377876" lon="-1.3907796079374473"><ele>415.99999999999994</ele><time>2026-03-30T17:27:25Z</time></trkpt><trkpt lat="42.10897991074419" lon="-1.3908579352762909"><ele>416.0</ele><time>2026-03-30T17:27:26Z</time></trkpt><trkpt lat="42.1090402941463" lon="-1.390951384876924"><ele>415.8</ele><time>2026-03-30T17:27:27Z</time></trkpt><trkpt lat="42.10910918921242" lon="-1.3910486704834901"><ele>415.6</ele><time>2026-03-30T17:27:28Z</time></trkpt><trkpt lat="42.10918204408712" lon="-1.3911542527818923"><ele>415.4</ele><time>2026-03-30T17:27:29Z</time></trkpt><trkpt lat="42.1092526869565" lon="-1.3912553789870585"><ele>415.2</ele><time>2026-03-30T17:27:30Z</time></trkpt><trkpt lat="42.10932740727318" lon="-1.3913598861141796"><ele>415.0</ele><time>2026-03-30T17:27:31Z</time></trkpt><trkpt lat="42.10938993651158" lon="-1.3914479952461458"><ele>414.6</ele><time>2026-03-30T17:27:32Z</time></trkpt><trkpt lat="42.10943876511076" lon="-1.391515676823703"><ele>414.2</ele><time>2026-03-30T17:27:33Z</time></trkpt><trkpt lat="42.10950676248312" lon="-1.3916326716650458"><ele>413.79999999999995</ele><time>2026-03-30T17:27:35Z</time></trkpt><trkpt lat="42.10957021807388" lon="-1.3917261038523043"><ele>413.4</ele><time>2026-03-30T17:27:37Z</time></trkpt><trkpt lat="42.10966249745728" lon="-1.3918630190293602"><ele>413.0</ele><time>2026-03-30T17:27:39Z</time></trkpt><trkpt lat="42.10971490314712" lon="-1.3919471287932204"><ele>413.0</ele><time>2026-03-30T17:27:40Z</time></trkpt><trkpt lat="42.10977261758462" lon="-1.3920286149430479"><ele>413.0</ele><time>2026-03-30T17:27:41Z</time></trkpt><trkpt lat="42.109843655491304" lon="-1.3921271740349594"><ele>413.0</ele><time>2026-03-30T17:27:42Z</time></trkpt><trkpt lat="42.10991195210555" lon="-1.392224346793731"><ele>413.0</ele><time>2026-03-30T17:27:43Z</time></trkpt><trkpt lat="42.10997894756856" lon="-1.3923252188619961"><ele>413.0</ele><time>2026-03-30T17:27:44Z</time></trkpt><trkpt lat="42.11003675727151" lon="-1.392417684873432"><ele>413.0</ele><time>2026-03-30T17:27:45Z</time></trkpt><trkpt lat="42.11011469921916" lon="-1.3925011251923247"><ele>413.0</ele><time>2026-03-30T17:27:46Z</time></trkpt><trkpt lat="42.11017823101841" lon="-1.3925832567620358"><ele>413.0</ele><time>2026-03-30T17:27:47Z</time></trkpt><trkpt lat="42.11024370937285" lon="-1.3926729865548448"><ele>413.0</ele><time>2026-03-30T17:27:48Z</time></trkpt><trkpt lat="42.11032267209097" lon="-1.392761719863288"><ele>413.0</ele><time>2026-03-30T17:27:49Z</time></trkpt><trkpt lat="42.11040038745936" lon="-1.3928345873348251"><ele>412.99999999999994</ele><time>2026-03-30T17:27:50Z</time></trkpt><trkpt lat="42.11049008606763" lon="-1.3928869639188663"><ele>413.0</ele><time>2026-03-30T17:27:51Z</time></trkpt><trkpt lat="42.11055893086865" lon="-1.3929423784785673"><ele>413.0</ele><time>2026-03-30T17:27:52Z</time></trkpt><trkpt lat="42.11064167994024" lon="-1.3930007171449916"><ele>413.0</ele><time>2026-03-30T17:27:53Z</time></trkpt><trkpt lat="42.11071618809145" lon="-1.393049433245896"><ele>412.99999999999994</ele><time>2026-03-30T17:27:54Z</time></trkpt><trkpt lat="42.11079326932971" lon="-1.3930959426488865"><ele>413.0</ele><time>2026-03-30T17:27:55Z</time></trkpt><trkpt lat="42.11087534487284" lon="-1.3931452070487065"><ele>413.79999999999995</ele><time>2026-03-30T17:27:56Z</time></trkpt><trkpt lat="42.110966301613715" lon="-1.3932035151576299"><ele>414.6</ele><time>2026-03-30T17:27:57Z</time></trkpt><trkpt lat="42.11105383527071" lon="-1.3932583265613403"><ele>415.4</ele><time>2026-03-30T17:27:58Z</time></trkpt><trkpt lat="42.11114136000013" lon="-1.3933194221425944"><ele>416.20000000000005</ele><time>2026-03-30T17:27:59Z</time></trkpt><trkpt lat="42.1112247115049" lon="-1.3933763433401625"><ele>417.0</ele><time>2026-03-30T17:28:00Z</time></trkpt><trkpt lat="42.11130066524611" lon="-1.3934086010596236"><ele>417.0</ele><time>2026-03-30T17:28:01Z</time></trkpt><trkpt lat="42.11135746294874" lon="-1.3934673168643918"><ele>417.0</ele><time>2026-03-30T17:28:02Z</time></trkpt><trkpt lat="42.11147334705133" lon="-1.3935179147565633"><ele>417.0</ele><time>2026-03-30T17:28:04Z</time></trkpt><trkpt lat="42.11154306631719" lon="-1.3935781196689554"><ele>417.0</ele><time>2026-03-30T17:28:06Z</time></trkpt><trkpt lat="42.111609105986496" lon="-1.3935956028073346"><ele>417.0</ele><time>2026-03-30T17:28:29Z</time></trkpt><trkpt lat="42.11174006890523" lon="-1.393452543266539"><ele>417.1666666666667</ele><time>2026-03-30T17:28:57Z</time></trkpt><trkpt lat="42.111779145420606" lon="-1.393334503984378"><ele>417.33333333333337</ele><time>2026-03-30T17:28:59Z</time></trkpt><trkpt lat="42.11180131152229" lon="-1.393254633529926"><ele>417.5</ele><time>2026-03-30T17:29:00Z</time></trkpt><trkpt lat="42.1118290434075" lon="-1.393162151727102"><ele>417.6666666666667</ele><time>2026-03-30T17:29:01Z</time></trkpt><trkpt lat="42.111856341503" lon="-1.3930670373045264"><ele>417.83333333333337</ele><time>2026-03-30T17:29:02Z</time></trkpt><trkpt lat="42.11188813573841" lon="-1.3929613387552657"><ele>418.0</ele><time>2026-03-30T17:29:03Z</time></trkpt><trkpt lat="42.1119230608512" lon="-1.392850534659002"><ele>418.4</ele><time>2026-03-30T17:29:04Z</time></trkpt><trkpt lat="42.111960869491796" lon="-1.3927302866994302"><ele>418.79999999999995</ele><time>2026-03-30T17:29:05Z</time></trkpt><trkpt lat="42.11200036866791" lon="-1.3925991392135817"><ele>419.2</ele><time>2026-03-30T17:29:06Z</time></trkpt><trkpt lat="42.1120461750847" lon="-1.39246384263782"><ele>419.6</ele><time>2026-03-30T17:29:07Z</time></trkpt><trkpt lat="42.112091813150855" lon="-1.392319083957884"><ele>420.0</ele><time>2026-03-30T17:29:08Z</time></trkpt><trkpt lat="42.11213775964552" lon="-1.3921755427492553"><ele>420.0</ele><time>2026-03-30T17:29:09Z</time></trkpt><trkpt lat="42.11218339041734" lon="-1.3920307338164948"><ele>420.0</ele><time>2026-03-30T17:29:10Z</time></trkpt><trkpt lat="42.11222934381561" lon="-1.3918854767489088"><ele>420.0</ele><time>2026-03-30T17:29:11Z</time></trkpt><trkpt lat="42.11227919981976" lon="-1.391727675060766"><ele>420.0</ele><time>2026-03-30T17:29:12Z</time></trkpt><trkpt lat="42.11233637794831" lon="-1.39153899483016"><ele>420.0</ele><time>2026-03-30T17:29:13Z</time></trkpt><trkpt lat="42.11239699417087" lon="-1.3913451149598373"><ele>420.0</ele><time>2026-03-30T17:29:14Z</time></trkpt><trkpt lat="42.11245707403877" lon="-1.3911519212714243"><ele>420.0</ele><time>2026-03-30T17:29:15Z</time></trkpt><trkpt lat="42.11251960602721" lon="-1.39095510932181"><ele>420.0</ele><time>2026-03-30T17:29:16Z</time></trkpt><trkpt lat="42.112581088878635" lon="-1.3907546151650678"><ele>420.0</ele><time>2026-03-30T17:29:17Z</time></trkpt><trkpt lat="42.11264454281109" lon="-1.3905589252371866"><ele>420.0</ele><time>2026-03-30T17:29:18Z</time></trkpt><trkpt lat="42.11270760451017" lon="-1.3903534738892203"><ele>419.66666666666663</ele><time>2026-03-30T17:29:19Z</time></trkpt><trkpt lat="42.11277582637027" lon="-1.390135352316619"><ele>419.3333333333333</ele><time>2026-03-30T17:29:20Z</time></trkpt><trkpt lat="42.11284970756948" lon="-1.3899027071857275"><ele>419.0</ele><time>2026-03-30T17:29:21Z</time></trkpt><trkpt lat="42.112924867392536" lon="-1.389654379084479"><ele>419.66666666666663</ele><time>2026-03-30T17:29:22Z</time></trkpt><trkpt lat="42.11300728106039" lon="-1.3893986476262554"><ele>420.33333333333337</ele><time>2026-03-30T17:29:23Z</time></trkpt><trkpt lat="42.11308539473883" lon="-1.3891474858078916"><ele>421.0</ele><time>2026-03-30T17:29:24Z</time></trkpt><trkpt lat="42.11315918404309" lon="-1.3889019739966182"><ele>421.33333333333337</ele><time>2026-03-30T17:29:25Z</time></trkpt><trkpt lat="42.113246239083374" lon="-1.3886452023988036"><ele>421.66666666666663</ele><time>2026-03-30T17:29:26Z</time></trkpt><trkpt lat="42.11332783239802" lon="-1.388386288761393"><ele>422.0</ele><time>2026-03-30T17:29:27Z</time></trkpt><trkpt lat="42.11341091737431" lon="-1.3881126965774855"><ele>422.0</ele><time>2026-03-30T17:29:28Z</time></trkpt><trkpt lat="42.11350079147856" lon="-1.3878338565236534"><ele>422.0</ele><time>2026-03-30T17:29:29Z</time></trkpt><trkpt lat="42.113591607801375" lon="-1.3875702064508395"><ele>422.0</ele><time>2026-03-30T17:29:30Z</time></trkpt><trkpt lat="42.113675669602806" lon="-1.3873199804926655"><ele>421.66666666666663</ele><time>2026-03-30T17:29:31Z</time></trkpt><trkpt lat="42.113761675229654" lon="-1.3870853489226682"><ele>421.33333333333337</ele><time>2026-03-30T17:29:32Z</time></trkpt><trkpt lat="42.113856514924905" lon="-1.38685548461486"><ele>421.0</ele><time>2026-03-30T17:29:33Z</time></trkpt><trkpt lat="42.11395148555964" lon="-1.3866268533897004"><ele>421.0</ele><time>2026-03-30T17:29:34Z</time></trkpt><trkpt lat="42.11404725699648" lon="-1.3863951567029207"><ele>421.0</ele><time>2026-03-30T17:29:35Z</time></trkpt><trkpt lat="42.11414700603753" lon="-1.3861628202992855"><ele>421.0</ele><time>2026-03-30T17:29:36Z</time></trkpt><trkpt lat="42.114247535983374" lon="-1.385923992279349"><ele>422.33333333333337</ele><time>2026-03-30T17:29:37Z</time></trkpt><trkpt lat="42.114356474712125" lon="-1.3856856305686382"><ele>423.66666666666663</ele><time>2026-03-30T17:29:38Z</time></trkpt><trkpt lat="42.1144670518094" lon="-1.3854554549289568"><ele>425.0</ele><time>2026-03-30T17:29:39Z</time></trkpt><trkpt lat="42.114580069410316" lon="-1.3852258122770154"><ele>426.0</ele><time>2026-03-30T17:29:40Z</time></trkpt><trkpt lat="42.11470049364275" lon="-1.384992827460909"><ele>427.0</ele><time>2026-03-30T17:29:41Z</time></trkpt><trkpt lat="42.11482851022941" lon="-1.384758867751663"><ele>428.0</ele><time>2026-03-30T17:29:42Z</time></trkpt><trkpt lat="42.11495184024748" lon="-1.3845333364363046"><ele>428.0</ele><time>2026-03-30T17:29:43Z</time></trkpt><trkpt lat="42.115082752670794" lon="-1.3843054208206906"><ele>428.0</ele><time>2026-03-30T17:29:44Z</time></trkpt><trkpt lat="42.115212431444206" lon="-1.3840696199690286"><ele>428.0</ele><time>2026-03-30T17:29:45Z</time></trkpt><trkpt lat="42.115345689141925" lon="-1.3838384257766543"><ele>429.0</ele><time>2026-03-30T17:29:46Z</time></trkpt><trkpt lat="42.11548433940648" lon="-1.383613769271981"><ele>430.0</ele><time>2026-03-30T17:29:47Z</time></trkpt><trkpt lat="42.1156293748215" lon="-1.3833946511047597"><ele>431.0</ele><time>2026-03-30T17:29:48Z</time></trkpt><trkpt lat="42.11577931068496" lon="-1.38317701935728"><ele>431.66666666666663</ele><time>2026-03-30T17:29:49Z</time></trkpt><trkpt lat="42.115927538837134" lon="-1.3829646457026827"><ele>432.33333333333337</ele><time>2026-03-30T17:29:50Z</time></trkpt><trkpt lat="42.11608031602648" lon="-1.3827492516236113"><ele>433.0</ele><time>2026-03-30T17:29:51Z</time></trkpt><trkpt lat="42.11623928396608" lon="-1.3825342617866978"><ele>433.0</ele><time>2026-03-30T17:29:52Z</time></trkpt><trkpt lat="42.116404420908125" lon="-1.382315033876856"><ele>433.0</ele><time>2026-03-30T17:29:53Z</time></trkpt><trkpt lat="42.116574294566234" lon="-1.3821006348838651"><ele>432.0</ele><time>2026-03-30T17:29:54Z</time></trkpt><trkpt lat="42.116748124375384" lon="-1.3818872638560373"><ele>431.0</ele><time>2026-03-30T17:29:55Z</time></trkpt><trkpt lat="42.116928701547714" lon="-1.3816629392422584"><ele>431.0</ele><time>2026-03-30T17:29:56Z</time></trkpt><trkpt lat="42.117107363954716" lon="-1.3814340853098763"><ele>431.0</ele><time>2026-03-30T17:29:57Z</time></trkpt><trkpt lat="42.11728997775231" lon="-1.3812009391731142"><ele>428.0</ele><time>2026-03-30T17:29:58Z</time></trkpt><trkpt lat="42.11748145953428" lon="-1.380963467823044"><ele>425.0</ele><time>2026-03-30T17:29:59Z</time></trkpt><trkpt lat="42.117672715605515" lon="-1.3807291719650774"><ele>421.5</ele><time>2026-03-30T17:30:00Z</time></trkpt><trkpt lat="42.11786413582697" lon="-1.3804829033300083"><ele>418.0</ele><time>2026-03-30T17:30:01Z</time></trkpt><trkpt lat="42.11805264605101" lon="-1.380244470198555"><ele>414.5</ele><time>2026-03-30T17:30:02Z</time></trkpt><trkpt lat="42.118238443527666" lon="-1.3800125549450821"><ele>411.0</ele><time>2026-03-30T17:30:03Z</time></trkpt><trkpt lat="42.11842241179474" lon="-1.37978578557499"><ele>411.5</ele><time>2026-03-30T17:30:04Z</time></trkpt><trkpt lat="42.118604468008456" lon="-1.3795560105286038"><ele>412.0</ele><time>2026-03-30T17:30:05Z</time></trkpt><trkpt lat="42.118784922985995" lon="-1.3793274858524491"><ele>412.0</ele><time>2026-03-30T17:30:06Z</time></trkpt><trkpt lat="42.11893869339217" lon="-1.3790905988391788"><ele>412.0</ele><time>2026-03-30T17:30:07Z</time></trkpt><trkpt lat="42.11913398869909" lon="-1.3788925702073502"><ele>413.0</ele><time>2026-03-30T17:30:08Z</time></trkpt><trkpt lat="42.11930732062239" lon="-1.3786655085802229"><ele>414.0</ele><time>2026-03-30T17:30:09Z</time></trkpt><trkpt lat="42.11948508628434" lon="-1.3784389631538647"><ele>414.0</ele><time>2026-03-30T17:30:10Z</time></trkpt><trkpt lat="42.11966682255086" lon="-1.3782110610636396"><ele>414.0</ele><time>2026-03-30T17:30:11Z</time></trkpt><trkpt lat="42.119845941852724" lon="-1.3779838215458884"><ele>406.0</ele><time>2026-03-30T17:30:12Z</time></trkpt><trkpt lat="42.12002714663389" lon="-1.3777520684237403"><ele>398.0</ele><time>2026-03-30T17:30:13Z</time></trkpt><trkpt lat="42.12020630839114" lon="-1.377519933140466"><ele>398.0</ele><time>2026-03-30T17:30:14Z</time></trkpt><trkpt lat="42.12038669713223" lon="-1.3772875680827104"><ele>398.0</ele><time>2026-03-30T17:30:15Z</time></trkpt><trkpt lat="42.12057131199592" lon="-1.3770477630941083"><ele>395.0</ele><time>2026-03-30T17:30:16Z</time></trkpt><trkpt lat="42.120754415909545" lon="-1.376801196540634"><ele>392.0</ele><time>2026-03-30T17:30:17Z</time></trkpt><trkpt lat="42.120932991327905" lon="-1.3765419151286367"><ele>391.5</ele><time>2026-03-30T17:30:18Z</time></trkpt><trkpt lat="42.12110983547077" lon="-1.3762795434286994"><ele>391.0</ele><time>2026-03-30T17:30:19Z</time></trkpt><trkpt lat="42.12127751093469" lon="-1.3760119395901271"><ele>391.0</ele><time>2026-03-30T17:30:20Z</time></trkpt><trkpt lat="42.12143628323755" lon="-1.3757305939379025"><ele>391.0</ele><time>2026-03-30T17:30:21Z</time></trkpt><trkpt lat="42.12158800309448" lon="-1.3754446676078764"><ele>392.5</ele><time>2026-03-30T17:30:22Z</time></trkpt><trkpt lat="42.121730291637824" lon="-1.375149381256798"><ele>394.0</ele><time>2026-03-30T17:30:23Z</time></trkpt><trkpt lat="42.12186572369173" lon="-1.374855909799813"><ele>396.0</ele><time>2026-03-30T17:30:24Z</time></trkpt><trkpt lat="42.12199379616615" lon="-1.374554738790712"><ele>398.0</ele><time>2026-03-30T17:30:25Z</time></trkpt><trkpt lat="42.122119049444414" lon="-1.374233466144052"><ele>398.0</ele><time>2026-03-30T17:30:26Z</time></trkpt><trkpt lat="42.12224296217632" lon="-1.3739126379312603"><ele>398.0</ele><time>2026-03-30T17:30:27Z</time></trkpt><trkpt lat="42.122357520958126" lon="-1.3735788515871261"><ele>398.0</ele><time>2026-03-30T17:30:28Z</time></trkpt><trkpt lat="42.12246142295366" lon="-1.3732322606068275"><ele>398.0</ele><time>2026-03-30T17:30:29Z</time></trkpt><trkpt lat="42.12255892694781" lon="-1.3728736003591084"><ele>398.0</ele><time>2026-03-30T17:30:30Z</time></trkpt><trkpt lat="42.1226469748014" lon="-1.3724975495581406"><ele>398.0</ele><time>2026-03-30T17:30:31Z</time></trkpt><trkpt lat="42.12273409594903" lon="-1.3721150401862245"><ele>400.5</ele><time>2026-03-30T17:30:32Z</time></trkpt><trkpt lat="42.1228038123602" lon="-1.3718125243866202"><ele>403.0</ele><time>2026-03-30T17:30:33Z</time></trkpt><trkpt lat="42.12286568809023" lon="-1.3714448134681936"><ele>406.0</ele><time>2026-03-30T17:30:34Z</time></trkpt><trkpt lat="42.122899844300306" lon="-1.3710668389663556"><ele>409.0</ele><time>2026-03-30T17:30:35Z</time></trkpt><trkpt lat="42.12294157159132" lon="-1.370689053384859"><ele>410.5</ele><time>2026-03-30T17:30:36Z</time></trkpt><trkpt lat="42.12298547508566" lon="-1.3703043748479524"><ele>412.0</ele><time>2026-03-30T17:30:37Z</time></trkpt><trkpt lat="42.122998134705426" lon="-1.3699237696997533"><ele>408.5</ele><time>2026-03-30T17:30:38Z</time></trkpt><trkpt lat="42.12301083477187" lon="-1.369539229310364"><ele>405.0</ele><time>2026-03-30T17:30:39Z</time></trkpt><trkpt lat="42.12301364572206" lon="-1.3691525956081065"><ele>402.5</ele><time>2026-03-30T17:30:40Z</time></trkpt><trkpt lat="42.12302143236816" lon="-1.3687678302235466"><ele>400.0</ele><time>2026-03-30T17:30:41Z</time></trkpt><trkpt lat="42.12300248679495" lon="-1.3683883199418372"><ele>398.0</ele><time>2026-03-30T17:30:42Z</time></trkpt><trkpt lat="42.12295713258149" lon="-1.368020296677047"><ele>396.0</ele><time>2026-03-30T17:30:43Z</time></trkpt><trkpt lat="42.1229210249551" lon="-1.3676586436288054"><ele>396.0</ele><time>2026-03-30T17:30:44Z</time></trkpt><trkpt lat="42.122883762922534" lon="-1.367301554521403"><ele>396.0</ele><time>2026-03-30T17:30:45Z</time></trkpt><trkpt lat="42.122844873721846" lon="-1.366939137540486"><ele>394.0</ele><time>2026-03-30T17:30:46Z</time></trkpt><trkpt lat="42.122812254993406" lon="-1.3665767267430537"><ele>392.0</ele><time>2026-03-30T17:30:47Z</time></trkpt><trkpt lat="42.12276866810965" lon="-1.3662121208844353"><ele>389.0</ele><time>2026-03-30T17:30:48Z</time></trkpt><trkpt lat="42.12273815684286" lon="-1.365842790339306"><ele>386.0</ele><time>2026-03-30T17:30:49Z</time></trkpt><trkpt lat="42.12271657715406" lon="-1.365470776397613"><ele>382.5</ele><time>2026-03-30T17:30:50Z</time></trkpt><trkpt lat="42.1227057098215" lon="-1.3650978936622873"><ele>379.0</ele><time>2026-03-30T17:30:51Z</time></trkpt><trkpt lat="42.122706882877736" lon="-1.3647245487555393"><ele>379.0</ele><time>2026-03-30T17:30:52Z</time></trkpt><trkpt lat="42.12272027387403" lon="-1.36435632769218"><ele>379.0</ele><time>2026-03-30T17:30:53Z</time></trkpt><trkpt lat="42.12274803913455" lon="-1.3639870489627997"><ele>378.0</ele><time>2026-03-30T17:30:54Z</time></trkpt><trkpt lat="42.12279731564246" lon="-1.36362148833738"><ele>377.0</ele><time>2026-03-30T17:30:55Z</time></trkpt><trkpt lat="42.12284898831928" lon="-1.3632531674811477"><ele>377.0</ele><time>2026-03-30T17:30:56Z</time></trkpt><trkpt lat="42.12291366213534" lon="-1.3628895464503363"><ele>377.0</ele><time>2026-03-30T17:30:57Z</time></trkpt><trkpt lat="42.122988861091194" lon="-1.36252714702555"><ele>377.0</ele><time>2026-03-30T17:30:58Z</time></trkpt><trkpt lat="42.123074424633806" lon="-1.3621682249540001"><ele>377.0</ele><time>2026-03-30T17:30:59Z</time></trkpt><trkpt lat="42.12314499910855" lon="-1.361802484308957"><ele>376.0</ele><time>2026-03-30T17:31:00Z</time></trkpt><trkpt lat="42.12327047346175" lon="-1.3614575176900818"><ele>375.0</ele><time>2026-03-30T17:31:01Z</time></trkpt><trkpt lat="42.12338145252835" lon="-1.3611081052541492"><ele>373.5</ele><time>2026-03-30T17:31:02Z</time></trkpt><trkpt lat="42.12349066681816" lon="-1.3607591812726687"><ele>372.0</ele><time>2026-03-30T17:31:03Z</time></trkpt><trkpt lat="42.123592553379055" lon="-1.3604073311619875"><ele>370.5</ele><time>2026-03-30T17:31:04Z</time></trkpt><trkpt lat="42.12369621986427" lon="-1.3600586408336126"><ele>369.0</ele><time>2026-03-30T17:31:05Z</time></trkpt><trkpt lat="42.1237987066185" lon="-1.359708154226149"><ele>368.5</ele><time>2026-03-30T17:31:06Z</time></trkpt><trkpt lat="42.12389449386238" lon="-1.3593526099564388"><ele>368.0</ele><time>2026-03-30T17:31:07Z</time></trkpt><trkpt lat="42.12399019604889" lon="-1.3590018593935762"><ele>367.0</ele><time>2026-03-30T17:31:08Z</time></trkpt><trkpt lat="42.124087949991896" lon="-1.3586536297126375"><ele>366.0</ele><time>2026-03-30T17:31:09Z</time></trkpt><trkpt lat="42.12417992948125" lon="-1.358305461872825"><ele>366.0</ele><time>2026-03-30T17:31:10Z</time></trkpt><trkpt lat="42.12427513029044" lon="-1.3579578083130566"><ele>366.0</ele><time>2026-03-30T17:31:11Z</time></trkpt><trkpt lat="42.124371257971646" lon="-1.3576178633429818"><ele>366.0</ele><time>2026-03-30T17:31:12Z</time></trkpt><trkpt lat="42.12446263564533" lon="-1.357279282546992"><ele>366.0</ele><time>2026-03-30T17:31:13Z</time></trkpt><trkpt lat="42.12455274196426" lon="-1.3569422166565142"><ele>364.5</ele><time>2026-03-30T17:31:14Z</time></trkpt><trkpt lat="42.12464746519614" lon="-1.356610558545776"><ele>363.0</ele><time>2026-03-30T17:31:15Z</time></trkpt><trkpt lat="42.124745303640424" lon="-1.3562793757951452"><ele>361.5</ele><time>2026-03-30T17:31:16Z</time></trkpt><trkpt lat="42.12483957382441" lon="-1.3559474583107447"><ele>360.0</ele><time>2026-03-30T17:31:17Z</time></trkpt><trkpt lat="42.124930738321936" lon="-1.3556117555854208"><ele>359.5</ele><time>2026-03-30T17:31:18Z</time></trkpt><trkpt lat="42.12502550657566" lon="-1.3552773954390858"><ele>359.0</ele><time>2026-03-30T17:31:19Z</time></trkpt><trkpt lat="42.125121063824785" lon="-1.3549436533991328"><ele>358.0</ele><time>2026-03-30T17:31:20Z</time></trkpt><trkpt lat="42.12521364049857" lon="-1.3546023058331262"><ele>357.0</ele><time>2026-03-30T17:31:21Z</time></trkpt><trkpt lat="42.12530669151229" lon="-1.3542603434834413"><ele>357.0</ele><time>2026-03-30T17:31:22Z</time></trkpt><trkpt lat="42.12540765252893" lon="-1.3539123624983567"><ele>357.0</ele><time>2026-03-30T17:31:23Z</time></trkpt><trkpt lat="42.125502606348" lon="-1.3535643053560087"><ele>356.5</ele><time>2026-03-30T17:31:24Z</time></trkpt><trkpt lat="42.12559465899076" lon="-1.3532160720271793"><ele>356.0</ele><time>2026-03-30T17:31:25Z</time></trkpt><trkpt lat="42.12569392887587" lon="-1.3528743700568404"><ele>356.0</ele><time>2026-03-30T17:31:26Z</time></trkpt><trkpt lat="42.12579327710433" lon="-1.352533272087506"><ele>356.0</ele><time>2026-03-30T17:31:27Z</time></trkpt><trkpt lat="42.12588666387926" lon="-1.352185507480632"><ele>355.0</ele><time>2026-03-30T17:31:28Z</time></trkpt><trkpt lat="42.12598176827216" lon="-1.351842289789143"><ele>354.0</ele><time>2026-03-30T17:31:29Z</time></trkpt><trkpt lat="42.12607858017331" lon="-1.3514998931847932"><ele>352.5</ele><time>2026-03-30T17:31:30Z</time></trkpt><trkpt lat="42.12617070974223" lon="-1.3511628415948407"><ele>351.0</ele><time>2026-03-30T17:31:31Z</time></trkpt><trkpt lat="42.12626616613271" lon="-1.3508177262384846"><ele>350.5</ele><time>2026-03-30T17:31:32Z</time></trkpt><trkpt lat="42.126359466055526" lon="-1.35047539996909"><ele>350.0</ele><time>2026-03-30T17:31:33Z</time></trkpt><trkpt lat="42.12645344351752" lon="-1.3501329050639002"><ele>350.0</ele><time>2026-03-30T17:31:34Z</time></trkpt><trkpt lat="42.12654780006946" lon="-1.3497898774513752"><ele>350.0</ele><time>2026-03-30T17:31:35Z</time></trkpt><trkpt lat="42.126643706127794" lon="-1.3494495333817342"><ele>350.0</ele><time>2026-03-30T17:31:36Z</time></trkpt><trkpt lat="42.126739461299366" lon="-1.349114022221773"><ele>350.0</ele><time>2026-03-30T17:31:37Z</time></trkpt><trkpt lat="42.126836038905864" lon="-1.3487785841719484"><ele>349.0</ele><time>2026-03-30T17:31:38Z</time></trkpt><trkpt lat="42.12692920310268" lon="-1.348443240838705"><ele>348.0</ele><time>2026-03-30T17:31:39Z</time></trkpt><trkpt lat="42.12702079128911" lon="-1.348104465364734"><ele>347.5</ele><time>2026-03-30T17:31:40Z</time></trkpt><trkpt lat="42.127115737028305" lon="-1.3477703957017713"><ele>347.0</ele><time>2026-03-30T17:31:41Z</time></trkpt><trkpt lat="42.12721544842738" lon="-1.3474337035257775"><ele>346.5</ele><time>2026-03-30T17:31:42Z</time></trkpt><trkpt lat="42.12730837806787" lon="-1.3470920774414257"><ele>346.0</ele><time>2026-03-30T17:31:43Z</time></trkpt><trkpt lat="42.127397869479886" lon="-1.346748670569304"><ele>347.0</ele><time>2026-03-30T17:31:44Z</time></trkpt><trkpt lat="42.12749054749958" lon="-1.3464079853025732"><ele>348.0</ele><time>2026-03-30T17:31:45Z</time></trkpt><trkpt lat="42.12758678328896" lon="-1.3460659620234987"><ele>348.0</ele><time>2026-03-30T17:31:46Z</time></trkpt><trkpt lat="42.12768350006043" lon="-1.3457216503652194"><ele>348.0</ele><time>2026-03-30T17:31:47Z</time></trkpt><trkpt lat="42.12778292489268" lon="-1.3453736394592148"><ele>347.0</ele><time>2026-03-30T17:31:48Z</time></trkpt><trkpt lat="42.1278816711529" lon="-1.3450280517832045"><ele>346.0</ele><time>2026-03-30T17:31:49Z</time></trkpt><trkpt lat="42.12797723968663" lon="-1.344681033873133"><ele>345.5</ele><time>2026-03-30T17:31:50Z</time></trkpt><trkpt lat="42.128073110185646" lon="-1.3443384376176264"><ele>345.0</ele><time>2026-03-30T17:31:51Z</time></trkpt><trkpt lat="42.12816654079421" lon="-1.3439940690600907"><ele>344.5</ele><time>2026-03-30T17:31:52Z</time></trkpt><trkpt lat="42.12826162332337" lon="-1.3436544692936079"><ele>344.0</ele><time>2026-03-30T17:31:53Z</time></trkpt><trkpt lat="42.12835687154905" lon="-1.3433239134388797"><ele>344.5</ele><time>2026-03-30T17:31:54Z</time></trkpt><trkpt lat="42.128449973424125" lon="-1.3429909359804244"><ele>345.0</ele><time>2026-03-30T17:31:55Z</time></trkpt><trkpt lat="42.12854134788258" lon="-1.342655051582329"><ele>345.0</ele><time>2026-03-30T17:31:56Z</time></trkpt><trkpt lat="42.12863199354258" lon="-1.3423199059392115"><ele>345.0</ele><time>2026-03-30T17:31:57Z</time></trkpt><trkpt lat="42.12872328909958" lon="-1.341987328713459"><ele>345.0</ele><time>2026-03-30T17:31:58Z</time></trkpt><trkpt lat="42.128817104832386" lon="-1.341657817195452"><ele>345.0</ele><time>2026-03-30T17:31:59Z</time></trkpt><trkpt lat="42.12890968902303" lon="-1.3413293277040903"><ele>344.5</ele><time>2026-03-30T17:32:00Z</time></trkpt><trkpt lat="42.12900093172421" lon="-1.3409954520391953"><ele>344.0</ele><time>2026-03-30T17:32:01Z</time></trkpt><trkpt lat="42.129093301255956" lon="-1.3406616154921227"><ele>343.5</ele><time>2026-03-30T17:32:02Z</time></trkpt><trkpt lat="42.12918629797474" lon="-1.3403314273671607"><ele>343.0</ele><time>2026-03-30T17:32:03Z</time></trkpt><trkpt lat="42.12927577486653" lon="-1.3400011962420246"><ele>343.0</ele><time>2026-03-30T17:32:04Z</time></trkpt><trkpt lat="42.12936564274016" lon="-1.3396743013660817"><ele>343.0</ele><time>2026-03-30T17:32:05Z</time></trkpt><trkpt lat="42.12946117459376" lon="-1.3393482389256515"><ele>343.0</ele><time>2026-03-30T17:32:06Z</time></trkpt><trkpt lat="42.12955138299425" lon="-1.339017069109421"><ele>343.0</ele><time>2026-03-30T17:32:07Z</time></trkpt><trkpt lat="42.129641348327254" lon="-1.338689735076741"><ele>343.5</ele><time>2026-03-30T17:32:08Z</time></trkpt><trkpt lat="42.1297379467482" lon="-1.3383602893187347"><ele>344.0</ele><time>2026-03-30T17:32:09Z</time></trkpt><trkpt lat="42.12983392564245" lon="-1.3380423978402172"><ele>343.5</ele><time>2026-03-30T17:32:10Z</time></trkpt><trkpt lat="42.129923144218175" lon="-1.3377186805285446"><ele>343.0</ele><time>2026-03-30T17:32:11Z</time></trkpt><trkpt lat="42.13000588682596" lon="-1.3373913979070924"><ele>343.5</ele><time>2026-03-30T17:32:12Z</time></trkpt><trkpt lat="42.13007422985763" lon="-1.337065033841401"><ele>344.0</ele><time>2026-03-30T17:32:13Z</time></trkpt><trkpt lat="42.13013310618842" lon="-1.3367280966356312"><ele>344.0</ele><time>2026-03-30T17:32:14Z</time></trkpt><trkpt lat="42.13015774754996" lon="-1.3363827118377154"><ele>344.0</ele><time>2026-03-30T17:32:15Z</time></trkpt><trkpt lat="42.13016850864763" lon="-1.3360368798262472"><ele>344.0</ele><time>2026-03-30T17:32:16Z</time></trkpt><trkpt lat="42.1301700455964" lon="-1.3356857061075378"><ele>344.0</ele><time>2026-03-30T17:32:17Z</time></trkpt><trkpt lat="42.13016965802447" lon="-1.3353338552505771"><ele>341.5</ele><time>2026-03-30T17:32:18Z</time></trkpt><trkpt lat="42.130163891415094" lon="-1.3349753719604078"><ele>339.0</ele><time>2026-03-30T17:32:19Z</time></trkpt><trkpt lat="42.1301715858227" lon="-1.334616165327207"><ele>338.5</ele><time>2026-03-30T17:32:20Z</time></trkpt><trkpt lat="42.130169688514904" lon="-1.3342568798473353"><ele>338.0</ele><time>2026-03-30T17:32:21Z</time></trkpt><trkpt lat="42.13018586795986" lon="-1.33389989786235"><ele>338.0</ele><time>2026-03-30T17:32:22Z</time></trkpt><trkpt lat="42.13021570370613" lon="-1.3335444311081748"><ele>338.0</ele><time>2026-03-30T17:32:23Z</time></trkpt><trkpt lat="42.13026606858778" lon="-1.3331896644157464"><ele>337.5</ele><time>2026-03-30T17:32:24Z</time></trkpt><trkpt lat="42.130335019582034" lon="-1.3328422087639118"><ele>337.0</ele><time>2026-03-30T17:32:25Z</time></trkpt><trkpt lat="42.130422710613345" lon="-1.3325032266627885"><ele>336.5</ele><time>2026-03-30T17:32:26Z</time></trkpt><trkpt lat="42.13051244091769" lon="-1.3321671885976492"><ele>336.0</ele><time>2026-03-30T17:32:27Z</time></trkpt><trkpt lat="42.13058510496578" lon="-1.3318222244003874"><ele>336.0</ele><time>2026-03-30T17:32:28Z</time></trkpt><trkpt lat="42.13068793124119" lon="-1.3314911806198955"><ele>336.0</ele><time>2026-03-30T17:32:29Z</time></trkpt><trkpt lat="42.13077547251392" lon="-1.3311486280022056"><ele>338.0</ele><time>2026-03-30T17:32:30Z</time></trkpt><trkpt lat="42.13086397953404" lon="-1.3308094567029836"><ele>340.0</ele><time>2026-03-30T17:32:31Z</time></trkpt><trkpt lat="42.13095120389527" lon="-1.3304627961093798"><ele>340.0</ele><time>2026-03-30T17:32:32Z</time></trkpt><trkpt lat="42.13103886449113" lon="-1.3301182052831908"><ele>340.0</ele><time>2026-03-30T17:32:33Z</time></trkpt><trkpt lat="42.13112878755738" lon="-1.3297775096287845"><ele>340.0</ele><time>2026-03-30T17:32:34Z</time></trkpt><trkpt lat="42.13122043055971" lon="-1.329432868960942"><ele>340.0</ele><time>2026-03-30T17:32:35Z</time></trkpt><trkpt lat="42.13130651291089" lon="-1.3290928021875241"><ele>342.5</ele><time>2026-03-30T17:32:36Z</time></trkpt><trkpt lat="42.13139274263458" lon="-1.328751732332475"><ele>345.0</ele><time>2026-03-30T17:32:37Z</time></trkpt><trkpt lat="42.13148139085528" lon="-1.3284146345718806"><ele>343.5</ele><time>2026-03-30T17:32:38Z</time></trkpt><trkpt lat="42.13156867921999" lon="-1.3280743388986136"><ele>342.0</ele><time>2026-03-30T17:32:39Z</time></trkpt><trkpt lat="42.13165339696182" lon="-1.3277371165145055"><ele>341.5</ele><time>2026-03-30T17:32:40Z</time></trkpt><trkpt lat="42.131739211789814" lon="-1.3274024874319148"><ele>341.0</ele><time>2026-03-30T17:32:41Z</time></trkpt><trkpt lat="42.13182692267356" lon="-1.3270644657477249"><ele>341.0</ele><time>2026-03-30T17:32:42Z</time></trkpt><trkpt lat="42.13190965517042" lon="-1.326724616726666"><ele>341.0</ele><time>2026-03-30T17:32:43Z</time></trkpt><trkpt lat="42.13197543625507" lon="-1.3263662001497467"><ele>340.0</ele><time>2026-03-30T17:32:44Z</time></trkpt><trkpt lat="42.1320411333448" lon="-1.3260054157597734"><ele>339.0</ele><time>2026-03-30T17:32:45Z</time></trkpt><trkpt lat="42.13208699319878" lon="-1.3256430354744635"><ele>338.0</ele><time>2026-03-30T17:32:46Z</time></trkpt><trkpt lat="42.132118993006635" lon="-1.3252702469554194"><ele>337.0</ele><time>2026-03-30T17:32:47Z</time></trkpt><trkpt lat="42.13213473121836" lon="-1.3248767405772064"><ele>338.0</ele><time>2026-03-30T17:32:48Z</time></trkpt><trkpt lat="42.1321411252356" lon="-1.324487114241763"><ele>339.0</ele><time>2026-03-30T17:32:49Z</time></trkpt><trkpt lat="42.1321431188451" lon="-1.3241118506735838"><ele>338.5</ele><time>2026-03-30T17:32:50Z</time></trkpt><trkpt lat="42.132158034375" lon="-1.3237366289923955"><ele>338.0</ele><time>2026-03-30T17:32:51Z</time></trkpt><trkpt lat="42.132160905315615" lon="-1.3233595483009135"><ele>336.5</ele><time>2026-03-30T17:32:52Z</time></trkpt><trkpt lat="42.132162313313415" lon="-1.3229894758336258"><ele>335.0</ele><time>2026-03-30T17:32:53Z</time></trkpt><trkpt lat="42.13216030885151" lon="-1.3226223469604517"><ele>335.0</ele><time>2026-03-30T17:32:54Z</time></trkpt><trkpt lat="42.13215877462686" lon="-1.3222567183417018"><ele>335.0</ele><time>2026-03-30T17:32:55Z</time></trkpt><trkpt lat="42.13216073592132" lon="-1.3218921088348115"><ele>335.0</ele><time>2026-03-30T17:32:56Z</time></trkpt><trkpt lat="42.13216261599208" lon="-1.3215307963023837"><ele>335.0</ele><time>2026-03-30T17:32:57Z</time></trkpt><trkpt lat="42.132163043362205" lon="-1.3211702748725942"><ele>334.0</ele><time>2026-03-30T17:32:58Z</time></trkpt><trkpt lat="42.132166772193386" lon="-1.320808004696237"><ele>333.0</ele><time>2026-03-30T17:32:59Z</time></trkpt><trkpt lat="42.13215108486242" lon="-1.3204451064871783"><ele>331.5</ele><time>2026-03-30T17:33:00Z</time></trkpt><trkpt lat="42.13216783538019" lon="-1.3200828705156715"><ele>330.0</ele><time>2026-03-30T17:33:01Z</time></trkpt><trkpt lat="42.132168178582" lon="-1.3197238974123062"><ele>329.5</ele><time>2026-03-30T17:33:02Z</time></trkpt><trkpt lat="42.1321690026917" lon="-1.3193626066962603"><ele>329.0</ele><time>2026-03-30T17:33:03Z</time></trkpt><trkpt lat="42.13216941946858" lon="-1.318999231628469"><ele>329.0</ele><time>2026-03-30T17:33:04Z</time></trkpt><trkpt lat="42.13216998858896" lon="-1.318629306853616"><ele>329.0</ele><time>2026-03-30T17:33:05Z</time></trkpt><trkpt lat="42.13216855967713" lon="-1.3182550081501296"><ele>329.5</ele><time>2026-03-30T17:33:06Z</time></trkpt><trkpt lat="42.13216948755983" lon="-1.317877884473931"><ele>330.0</ele><time>2026-03-30T17:33:07Z</time></trkpt><trkpt lat="42.1321691821216" lon="-1.3175089054165803"><ele>329.5</ele><time>2026-03-30T17:33:08Z</time></trkpt><trkpt lat="42.13216896777771" lon="-1.3171373547327987"><ele>329.0</ele><time>2026-03-30T17:33:09Z</time></trkpt><trkpt lat="42.13217018414894" lon="-1.3167636625131454"><ele>329.5</ele><time>2026-03-30T17:33:10Z</time></trkpt><trkpt lat="42.132167864542225" lon="-1.3163789168383593"><ele>330.0</ele><time>2026-03-30T17:33:11Z</time></trkpt><trkpt lat="42.13216933216703" lon="-1.3160535474117"><ele>330.0</ele><time>2026-03-30T17:33:12Z</time></trkpt><trkpt lat="42.1321643265526" lon="-1.315739212204399"><ele>330.0</ele><time>2026-03-30T17:33:13Z</time></trkpt><trkpt lat="42.13216707671453" lon="-1.3153219561844345"><ele>329.0</ele><time>2026-03-30T17:33:14Z</time></trkpt><trkpt lat="42.13216840796592" lon="-1.3149617342260171"><ele>328.0</ele><time>2026-03-30T17:33:15Z</time></trkpt><trkpt lat="42.132171061650574" lon="-1.3146024959759264"><ele>327.5</ele><time>2026-03-30T17:33:16Z</time></trkpt><trkpt lat="42.13217510781192" lon="-1.3142445388534496"><ele>327.0</ele><time>2026-03-30T17:33:17Z</time></trkpt><trkpt lat="42.13217856462489" lon="-1.3138876021527994"><ele>327.0</ele><time>2026-03-30T17:33:18Z</time></trkpt><trkpt lat="42.13217809421551" lon="-1.3135351813386325"><ele>327.0</ele><time>2026-03-30T17:33:19Z</time></trkpt><trkpt lat="42.13217470316894" lon="-1.3131909439201759"><ele>327.0</ele><time>2026-03-30T17:33:20Z</time></trkpt><trkpt lat="42.13217461376105" lon="-1.3128668461147714"><ele>327.0</ele><time>2026-03-30T17:33:21Z</time></trkpt><trkpt lat="42.13217404748191" lon="-1.3125600924618241"><ele>327.0</ele><time>2026-03-30T17:33:22Z</time></trkpt><trkpt lat="42.13217461480732" lon="-1.312276781887806"><ele>327.0</ele><time>2026-03-30T17:33:23Z</time></trkpt><trkpt lat="42.132178341781355" lon="-1.3120182179027342"><ele>327.0</ele><time>2026-03-30T17:33:24Z</time></trkpt><trkpt lat="42.13218289371398" lon="-1.3117763173684514"><ele>326.6666666666667</ele><time>2026-03-30T17:33:25Z</time></trkpt><trkpt lat="42.132181095286455" lon="-1.311550386016625"><ele>326.33333333333337</ele><time>2026-03-30T17:33:26Z</time></trkpt><trkpt lat="42.132179891916145" lon="-1.3113278795246168"><ele>326.0</ele><time>2026-03-30T17:33:27Z</time></trkpt><trkpt lat="42.13218051301008" lon="-1.311095962739847"><ele>326.33333333333337</ele><time>2026-03-30T17:33:28Z</time></trkpt><trkpt lat="42.13218385897662" lon="-1.3108723155815092"><ele>326.6666666666667</ele><time>2026-03-30T17:33:29Z</time></trkpt><trkpt lat="42.13216834557286" lon="-1.3106612357064984"><ele>327.0</ele><time>2026-03-30T17:33:30Z</time></trkpt><trkpt lat="42.13216834557238" lon="-1.310468283740497"><ele>327.0</ele><time>2026-03-30T17:33:31Z</time></trkpt><trkpt lat="42.13217011994047" lon="-1.310272110839764"><ele>327.0</ele><time>2026-03-30T17:33:32Z</time></trkpt><trkpt lat="42.13217272932383" lon="-1.3100597093016157"><ele>327.0</ele><time>2026-03-30T17:33:33Z</time></trkpt><trkpt lat="42.13218164459327" lon="-1.3098290787819642"><ele>327.3333333333333</ele><time>2026-03-30T17:33:34Z</time></trkpt><trkpt lat="42.13218509671535" lon="-1.3095909900023548"><ele>327.66666666666663</ele><time>2026-03-30T17:33:35Z</time></trkpt><trkpt lat="42.13218689923224" lon="-1.309344550893777"><ele>328.0</ele><time>2026-03-30T17:33:36Z</time></trkpt><trkpt lat="42.1321824774532" lon="-1.3091094445508562"><ele>328.0</ele><time>2026-03-30T17:33:37Z</time></trkpt><trkpt lat="42.132184974437884" lon="-1.3088937811593653"><ele>328.0</ele><time>2026-03-30T17:33:38Z</time></trkpt><trkpt lat="42.13218595055187" lon="-1.308697801206955"><ele>328.0</ele><time>2026-03-30T17:33:39Z</time></trkpt><trkpt lat="42.13217166399063" lon="-1.3085141820993673"><ele>328.0</ele><time>2026-03-30T17:33:40Z</time></trkpt><trkpt lat="42.132171987972114" lon="-1.3083297230861464"><ele>328.0</ele><time>2026-03-30T17:33:41Z</time></trkpt><trkpt lat="42.13217231946506" lon="-1.3081409873485228"><ele>328.0</ele><time>2026-03-30T17:33:42Z</time></trkpt><trkpt lat="42.132172653924776" lon="-1.3079505625484005"><ele>328.0</ele><time>2026-03-30T17:33:43Z</time></trkpt><trkpt lat="42.13217296975233" lon="-1.3077707461354053"><ele>328.0</ele><time>2026-03-30T17:33:44Z</time></trkpt><trkpt lat="42.13217326006419" lon="-1.3076054571474163"><ele>327.59999999999997</ele><time>2026-03-30T17:33:45Z</time></trkpt><trkpt lat="42.132173345571395" lon="-1.3074504459758256"><ele>327.2</ele><time>2026-03-30T17:33:46Z</time></trkpt><trkpt lat="42.13217334557137" lon="-1.3073103496170035"><ele>326.8</ele><time>2026-03-30T17:33:47Z</time></trkpt><trkpt lat="42.13217334557125" lon="-1.3071811849155315"><ele>326.4</ele><time>2026-03-30T17:33:48Z</time></trkpt><trkpt lat="42.132173345571346" lon="-1.3070546436481172"><ele>326.0</ele><time>2026-03-30T17:33:49Z</time></trkpt><trkpt lat="42.13219009258324" lon="-1.3069108037963684"><ele>325.75</ele><time>2026-03-30T17:33:50Z</time></trkpt><trkpt lat="42.13218518764437" lon="-1.306763001386711"><ele>325.5</ele><time>2026-03-30T17:33:51Z</time></trkpt><trkpt lat="42.13217098020487" lon="-1.3066127579816462"><ele>325.25</ele><time>2026-03-30T17:33:52Z</time></trkpt><trkpt lat="42.13211093180402" lon="-1.3064708691182954"><ele>325.0</ele><time>2026-03-30T17:33:53Z</time></trkpt><trkpt lat="42.1320507338401" lon="-1.306347883422396"><ele>325.0</ele><time>2026-03-30T17:33:54Z</time></trkpt><trkpt lat="42.132042853707254" lon="-1.3061981314590414"><ele>325.0</ele><time>2026-03-30T17:33:55Z</time></trkpt><trkpt lat="42.13211962567092" lon="-1.306051783286561"><ele>325.0</ele><time>2026-03-30T17:33:56Z</time></trkpt><trkpt lat="42.132245030716454" lon="-1.305982941926311"><ele>325.0</ele><time>2026-03-30T17:33:57Z</time></trkpt><trkpt lat="42.13219805203072" lon="-1.3057368735676464"><ele>325.0</ele><time>2026-03-30T17:33:58Z</time></trkpt><trkpt lat="42.132180662221245" lon="-1.3054998419075625"><ele>325.0</ele><time>2026-03-30T17:33:59Z</time></trkpt><trkpt lat="42.13217661276556" lon="-1.3052388771800538"><ele>325.0</ele><time>2026-03-30T17:34:00Z</time></trkpt><trkpt lat="42.132178497915476" lon="-1.3049408781910106"><ele>324.66666666666663</ele><time>2026-03-30T17:34:01Z</time></trkpt><trkpt lat="42.13218193304476" lon="-1.3046683192518005"><ele>324.3333333333333</ele><time>2026-03-30T17:34:02Z</time></trkpt><trkpt lat="42.132185026962674" lon="-1.3044228338892034"><ele>324.0</ele><time>2026-03-30T17:34:03Z</time></trkpt><trkpt lat="42.13219910922254" lon="-1.3041825138731704"><ele>324.0</ele><time>2026-03-30T17:34:04Z</time></trkpt><trkpt lat="42.13220434316947" lon="-1.303923718134382"><ele>324.0</ele><time>2026-03-30T17:34:05Z</time></trkpt><trkpt lat="42.13221043170553" lon="-1.303648908168379"><ele>324.0</ele><time>2026-03-30T17:34:06Z</time></trkpt><trkpt lat="42.13221633797713" lon="-1.3033715584131413"><ele>324.0</ele><time>2026-03-30T17:34:07Z</time></trkpt><trkpt lat="42.13221915165098" lon="-1.3030937239504778"><ele>324.0</ele><time>2026-03-30T17:34:08Z</time></trkpt><trkpt lat="42.13222624914432" lon="-1.3028132691689913"><ele>324.0</ele><time>2026-03-30T17:34:09Z</time></trkpt><trkpt lat="42.13221729871288" lon="-1.3025262183268596"><ele>323.0</ele><time>2026-03-30T17:34:10Z</time></trkpt><trkpt lat="42.13222201887869" lon="-1.3022398403618731"><ele>322.0</ele><time>2026-03-30T17:34:11Z</time></trkpt><trkpt lat="42.13222672249591" lon="-1.301954466564018"><ele>321.0</ele><time>2026-03-30T17:34:12Z</time></trkpt><trkpt lat="42.13223141380267" lon="-1.3016698418630215"><ele>321.0</ele><time>2026-03-30T17:34:13Z</time></trkpt><trkpt lat="42.132238555530236" lon="-1.3013843928427369"><ele>321.0</ele><time>2026-03-30T17:34:14Z</time></trkpt><trkpt lat="42.13226142749897" lon="-1.301090860605661"><ele>321.0</ele><time>2026-03-30T17:34:15Z</time></trkpt><trkpt lat="42.1322647053171" lon="-1.3007990607433466"><ele>321.0</ele><time>2026-03-30T17:34:16Z</time></trkpt><trkpt lat="42.132270643255936" lon="-1.3005026703131681"><ele>321.0</ele><time>2026-03-30T17:34:17Z</time></trkpt><trkpt lat="42.13227766675804" lon="-1.3002028470047688"><ele>321.0</ele><time>2026-03-30T17:34:18Z</time></trkpt><trkpt lat="42.13228245840878" lon="-1.299900681557553"><ele>321.0</ele><time>2026-03-30T17:34:19Z</time></trkpt><trkpt lat="42.13228685124949" lon="-1.2995915730572434"><ele>321.0</ele><time>2026-03-30T17:34:20Z</time></trkpt><trkpt lat="42.13227897158965" lon="-1.2992764884490884"><ele>321.0</ele><time>2026-03-30T17:34:21Z</time></trkpt><trkpt lat="42.13230158978981" lon="-1.2989671285367317"><ele>321.0</ele><time>2026-03-30T17:34:22Z</time></trkpt><trkpt lat="42.13230419716224" lon="-1.2986556997523033"><ele>320.5</ele><time>2026-03-30T17:34:23Z</time></trkpt><trkpt lat="42.132309290623944" lon="-1.298340302231929"><ele>320.0</ele><time>2026-03-30T17:34:24Z</time></trkpt><trkpt lat="42.13231672872041" lon="-1.2980233011915248"><ele>319.5</ele><time>2026-03-30T17:34:25Z</time></trkpt><trkpt lat="42.13230664975838" lon="-1.297693389537091"><ele>319.0</ele><time>2026-03-30T17:34:26Z</time></trkpt><trkpt lat="42.13231078318648" lon="-1.297375756763416"><ele>319.0</ele><time>2026-03-30T17:34:27Z</time></trkpt><trkpt lat="42.1323142985091" lon="-1.2970526469360852"><ele>319.0</ele><time>2026-03-30T17:34:28Z</time></trkpt><trkpt lat="42.1323335381821" lon="-1.2967270533632564"><ele>319.0</ele><time>2026-03-30T17:34:29Z</time></trkpt><trkpt lat="42.132338022445715" lon="-1.2963957820612602"><ele>319.0</ele><time>2026-03-30T17:34:30Z</time></trkpt><trkpt lat="42.13232270829299" lon="-1.2960700548655517"><ele>319.0</ele><time>2026-03-30T17:34:31Z</time></trkpt><trkpt lat="42.13232389329946" lon="-1.295747401404612"><ele>319.0</ele><time>2026-03-30T17:34:32Z</time></trkpt><trkpt lat="42.13234101784422" lon="-1.29543614645394"><ele>319.0</ele><time>2026-03-30T17:34:33Z</time></trkpt><trkpt lat="42.132340839308384" lon="-1.2951229069032864"><ele>319.0</ele><time>2026-03-30T17:34:34Z</time></trkpt><trkpt lat="42.13234101600235" lon="-1.294807435799421"><ele>319.0</ele><time>2026-03-30T17:34:35Z</time></trkpt><trkpt lat="42.13234085013624" lon="-1.29449334410852"><ele>319.0</ele><time>2026-03-30T17:34:36Z</time></trkpt><trkpt lat="42.13234466340239" lon="-1.2941739004313189"><ele>318.5</ele><time>2026-03-30T17:34:37Z</time></trkpt><trkpt lat="42.13234333610478" lon="-1.293861105024955"><ele>318.0</ele><time>2026-03-30T17:34:38Z</time></trkpt><trkpt lat="42.132341429891085" lon="-1.2935500580016066"><ele>318.0</ele><time>2026-03-30T17:34:39Z</time></trkpt><trkpt lat="42.13234317602059" lon="-1.2932282969898592"><ele>318.0</ele><time>2026-03-30T17:34:40Z</time></trkpt><trkpt lat="42.132342382502635" lon="-1.29291304193998"><ele>318.5</ele><time>2026-03-30T17:34:41Z</time></trkpt><trkpt lat="42.13233961077078" lon="-1.2925971620267525"><ele>319.0</ele><time>2026-03-30T17:34:42Z</time></trkpt><trkpt lat="42.1323420349917" lon="-1.2922808859481296"><ele>319.0</ele><time>2026-03-30T17:34:43Z</time></trkpt><trkpt lat="42.13232523496778" lon="-1.2919622027834436"><ele>319.0</ele><time>2026-03-30T17:34:44Z</time></trkpt><trkpt lat="42.13232476660059" lon="-1.291643080806993"><ele>319.5</ele><time>2026-03-30T17:34:45Z</time></trkpt><trkpt lat="42.132324287844966" lon="-1.2913168809611575"><ele>320.0</ele><time>2026-03-30T17:34:46Z</time></trkpt><trkpt lat="42.132323807296515" lon="-1.2909894591986457"><ele>320.0</ele><time>2026-03-30T17:34:47Z</time></trkpt><trkpt lat="42.13232338048628" lon="-1.290660341876218"><ele>320.0</ele><time>2026-03-30T17:34:48Z</time></trkpt><trkpt lat="42.13232299822722" lon="-1.2903111855761418"><ele>320.5</ele><time>2026-03-30T17:34:49Z</time></trkpt><trkpt lat="42.13233724656313" lon="-1.2899535865077318"><ele>321.0</ele><time>2026-03-30T17:34:50Z</time></trkpt><trkpt lat="42.13233677281542" lon="-1.2895907925823924"><ele>321.5</ele><time>2026-03-30T17:34:51Z</time></trkpt><trkpt lat="42.13233611111028" lon="-1.2892413900045627"><ele>322.0</ele><time>2026-03-30T17:34:52Z</time></trkpt><trkpt lat="42.13233751558178" lon="-1.2888979018640772"><ele>323.5</ele><time>2026-03-30T17:34:53Z</time></trkpt><trkpt lat="42.132323697707804" lon="-1.288556020700081"><ele>325.0</ele><time>2026-03-30T17:34:54Z</time></trkpt><trkpt lat="42.13232530374729" lon="-1.2882153255026962"><ele>326.0</ele><time>2026-03-30T17:34:55Z</time></trkpt><trkpt lat="42.13234211714655" lon="-1.2878760514672962"><ele>327.0</ele><time>2026-03-30T17:34:56Z</time></trkpt><trkpt lat="42.132341967920425" lon="-1.2875376917280812"><ele>327.0</ele><time>2026-03-30T17:34:57Z</time></trkpt><trkpt lat="42.13234636514381" lon="-1.2871938198533774"><ele>327.0</ele><time>2026-03-30T17:34:58Z</time></trkpt><trkpt lat="42.13233133773485" lon="-1.2868463864517883"><ele>327.0</ele><time>2026-03-30T17:34:59Z</time></trkpt><trkpt lat="42.13234907159658" lon="-1.2864940673446448"><ele>327.0</ele><time>2026-03-30T17:35:00Z</time></trkpt><trkpt lat="42.13234954052151" lon="-1.2861497736358611"><ele>326.0</ele><time>2026-03-30T17:35:01Z</time></trkpt><trkpt lat="42.132351285776444" lon="-1.285802177547937"><ele>325.0</ele><time>2026-03-30T17:35:02Z</time></trkpt><trkpt lat="42.13234991989483" lon="-1.2854473890734104"><ele>324.0</ele><time>2026-03-30T17:35:03Z</time></trkpt><trkpt lat="42.13234844666378" lon="-1.285089980198249"><ele>323.0</ele><time>2026-03-30T17:35:04Z</time></trkpt><trkpt lat="42.132349245436664" lon="-1.2847298491249992"><ele>322.5</ele><time>2026-03-30T17:35:05Z</time></trkpt><trkpt lat="42.132350290014145" lon="-1.284374677277412"><ele>322.0</ele><time>2026-03-30T17:35:06Z</time></trkpt><trkpt lat="42.13233736008592" lon="-1.2840128653413705"><ele>323.0</ele><time>2026-03-30T17:35:07Z</time></trkpt><trkpt lat="42.132337856994916" lon="-1.2836527388981989"><ele>324.0</ele><time>2026-03-30T17:35:08Z</time></trkpt><trkpt lat="42.13235403040077" lon="-1.2833144179441565"><ele>325.0</ele><time>2026-03-30T17:35:09Z</time></trkpt><trkpt lat="42.13233896125451" lon="-1.2829771708468287"><ele>326.0</ele><time>2026-03-30T17:35:10Z</time></trkpt><trkpt lat="42.132339691312325" lon="-1.282624662605445"><ele>326.0</ele><time>2026-03-30T17:35:11Z</time></trkpt><trkpt lat="42.1323516034538" lon="-1.28227013212988"><ele>326.0</ele><time>2026-03-30T17:35:12Z</time></trkpt><trkpt lat="42.13235011250492" lon="-1.2819203541046187"><ele>326.0</ele><time>2026-03-30T17:35:13Z</time></trkpt><trkpt lat="42.132356748692374" lon="-1.2815711798844294"><ele>326.0</ele><time>2026-03-30T17:35:14Z</time></trkpt><trkpt lat="42.132344050785385" lon="-1.281224853142829"><ele>326.0</ele><time>2026-03-30T17:35:15Z</time></trkpt><trkpt lat="42.13234524454884" lon="-1.2808819446214048"><ele>326.0</ele><time>2026-03-30T17:35:16Z</time></trkpt><trkpt lat="42.13236212604753" lon="-1.2805384311349137"><ele>325.5</ele><time>2026-03-30T17:35:17Z</time></trkpt><trkpt lat="42.132362664346196" lon="-1.2802019602916617"><ele>325.0</ele><time>2026-03-30T17:35:18Z</time></trkpt><trkpt lat="42.13236365600343" lon="-1.2798681659346398"><ele>324.0</ele><time>2026-03-30T17:35:19Z</time></trkpt><trkpt lat="42.13236438004935" lon="-1.2795413427850357"><ele>323.0</ele><time>2026-03-30T17:35:20Z</time></trkpt><trkpt lat="42.13234977583566" lon="-1.279202345026976"><ele>322.5</ele><time>2026-03-30T17:35:21Z</time></trkpt><trkpt lat="42.13236686809622" lon="-1.278861211130678"><ele>322.0</ele><time>2026-03-30T17:35:22Z</time></trkpt><trkpt lat="42.13236383065306" lon="-1.2785175458389777"><ele>322.0</ele><time>2026-03-30T17:35:23Z</time></trkpt><trkpt lat="42.13236464082728" lon="-1.278177500962054"><ele>322.0</ele><time>2026-03-30T17:35:24Z</time></trkpt><trkpt lat="42.132369410519665" lon="-1.277830051931406"><ele>323.5</ele><time>2026-03-30T17:35:25Z</time></trkpt><trkpt lat="42.13237024016682" lon="-1.277493315223799"><ele>325.0</ele><time>2026-03-30T17:35:26Z</time></trkpt><trkpt lat="42.13236599925349" lon="-1.2771603187227087"><ele>326.0</ele><time>2026-03-30T17:35:27Z</time></trkpt><trkpt lat="42.13236496977823" lon="-1.276828342975618"><ele>327.0</ele><time>2026-03-30T17:35:28Z</time></trkpt><trkpt lat="42.13236879193156" lon="-1.276498154583161"><ele>328.0</ele><time>2026-03-30T17:35:29Z</time></trkpt><trkpt lat="42.13237296937821" lon="-1.276168091294267"><ele>329.0</ele><time>2026-03-30T17:35:30Z</time></trkpt><trkpt lat="42.1323728682743" lon="-1.2758364155852173"><ele>330.5</ele><time>2026-03-30T17:35:31Z</time></trkpt><trkpt lat="42.13237514901138" lon="-1.2755070967157893"><ele>332.0</ele><time>2026-03-30T17:35:32Z</time></trkpt><trkpt lat="42.132376919908545" lon="-1.2751561053689056"><ele>332.0</ele><time>2026-03-30T17:35:33Z</time></trkpt><trkpt lat="42.132361953807745" lon="-1.274806060012706"><ele>332.0</ele><time>2026-03-30T17:35:34Z</time></trkpt><trkpt lat="42.132379140619875" lon="-1.2744456648008824"><ele>332.0</ele><time>2026-03-30T17:35:35Z</time></trkpt><trkpt lat="42.13237540004886" lon="-1.2740942870453198"><ele>332.0</ele><time>2026-03-30T17:35:36Z</time></trkpt><trkpt lat="42.132372538426374" lon="-1.2737417799302586"><ele>330.5</ele><time>2026-03-30T17:35:37Z</time></trkpt><trkpt lat="42.13237381797192" lon="-1.2733859564780319"><ele>329.0</ele><time>2026-03-30T17:35:38Z</time></trkpt><trkpt lat="42.132377433067575" lon="-1.273031371850243"><ele>329.0</ele><time>2026-03-30T17:35:39Z</time></trkpt><trkpt lat="42.13238061375083" lon="-1.272670204187398"><ele>329.0</ele><time>2026-03-30T17:35:40Z</time></trkpt><trkpt lat="42.1323816263803" lon="-1.272312087091963"><ele>329.0</ele><time>2026-03-30T17:35:41Z</time></trkpt><trkpt lat="42.13238104974505" lon="-1.2719447994120088"><ele>329.0</ele><time>2026-03-30T17:35:42Z</time></trkpt><trkpt lat="42.13238388078422" lon="-1.2715824474745527"><ele>327.5</ele><time>2026-03-30T17:35:43Z</time></trkpt><trkpt lat="42.13238592572773" lon="-1.2712138898363594"><ele>326.0</ele><time>2026-03-30T17:35:44Z</time></trkpt><trkpt lat="42.13238448010317" lon="-1.2708475625468905"><ele>326.0</ele><time>2026-03-30T17:35:45Z</time></trkpt><trkpt lat="42.13238450285961" lon="-1.2704663277949726"><ele>326.0</ele><time>2026-03-30T17:35:46Z</time></trkpt><trkpt lat="42.13238743823846" lon="-1.2701053567432001"><ele>326.5</ele><time>2026-03-30T17:35:47Z</time></trkpt><trkpt lat="42.13238984446598" lon="-1.2697306829446426"><ele>327.0</ele><time>2026-03-30T17:35:48Z</time></trkpt><trkpt lat="42.13238904307007" lon="-1.2693596199872763"><ele>327.0</ele><time>2026-03-30T17:35:49Z</time></trkpt><trkpt lat="42.132389819194195" lon="-1.268989927602452"><ele>327.0</ele><time>2026-03-30T17:35:50Z</time></trkpt><trkpt lat="42.1323907195663" lon="-1.2686243269137334"><ele>327.0</ele><time>2026-03-30T17:35:51Z</time></trkpt><trkpt lat="42.13239222104185" lon="-1.2682657410403526"><ele>327.0</ele><time>2026-03-30T17:35:52Z</time></trkpt><trkpt lat="42.13237824482783" lon="-1.2678992675727632"><ele>325.5</ele><time>2026-03-30T17:35:53Z</time></trkpt><trkpt lat="42.13239495994672" lon="-1.2675385104512686"><ele>324.0</ele><time>2026-03-30T17:35:54Z</time></trkpt><trkpt lat="42.132392505434325" lon="-1.2671765718023085"><ele>323.0</ele><time>2026-03-30T17:35:55Z</time></trkpt><trkpt lat="42.13239386874212" lon="-1.2668124581173306"><ele>322.0</ele><time>2026-03-30T17:35:56Z</time></trkpt><trkpt lat="42.13239574725791" lon="-1.266451714381814"><ele>321.5</ele><time>2026-03-30T17:35:57Z</time></trkpt><trkpt lat="42.132397016163935" lon="-1.2660927635605523"><ele>321.0</ele><time>2026-03-30T17:35:58Z</time></trkpt><trkpt lat="42.13239689885142" lon="-1.265732765352622"><ele>321.0</ele><time>2026-03-30T17:35:59Z</time></trkpt><trkpt lat="42.13239682026236" lon="-1.265382521715221"><ele>321.0</ele><time>2026-03-30T17:36:00Z</time></trkpt><trkpt lat="42.1323997901509" lon="-1.2650233126836121"><ele>321.5</ele><time>2026-03-30T17:36:01Z</time></trkpt><trkpt lat="42.13238549886342" lon="-1.2646712504618849"><ele>322.0</ele><time>2026-03-30T17:36:02Z</time></trkpt><trkpt lat="42.132386281880365" lon="-1.2643167352674105"><ele>321.5</ele><time>2026-03-30T17:36:03Z</time></trkpt><trkpt lat="42.132403236304285" lon="-1.263966636914081"><ele>321.0</ele><time>2026-03-30T17:36:04Z</time></trkpt><trkpt lat="42.13240307647956" lon="-1.2636106930280802"><ele>321.0</ele><time>2026-03-30T17:36:05Z</time></trkpt><trkpt lat="42.13240360350997" lon="-1.2632563144379079"><ele>321.0</ele><time>2026-03-30T17:36:06Z</time></trkpt><trkpt lat="42.13240322933189" lon="-1.2629030028593107"><ele>321.0</ele><time>2026-03-30T17:36:07Z</time></trkpt><trkpt lat="42.13240316703014" lon="-1.2625494405665385"><ele>321.0</ele><time>2026-03-30T17:36:08Z</time></trkpt><trkpt lat="42.13240322056949" lon="-1.2621915566157065"><ele>321.5</ele><time>2026-03-30T17:36:09Z</time></trkpt><trkpt lat="42.132402600773" lon="-1.2618213048940212"><ele>322.0</ele><time>2026-03-30T17:36:10Z</time></trkpt><trkpt lat="42.13240309626961" lon="-1.2614608165534047"><ele>322.0</ele><time>2026-03-30T17:36:11Z</time></trkpt><trkpt lat="42.13240542870459" lon="-1.2610985993251274"><ele>322.0</ele><time>2026-03-30T17:36:12Z</time></trkpt><trkpt lat="42.13240711085575" lon="-1.26073704592575"><ele>322.5</ele><time>2026-03-30T17:36:13Z</time></trkpt><trkpt lat="42.13240680485731" lon="-1.2603641387820572"><ele>323.0</ele><time>2026-03-30T17:36:14Z</time></trkpt><trkpt lat="42.13240880242149" lon="-1.2599980472214147"><ele>322.5</ele><time>2026-03-30T17:36:15Z</time></trkpt><trkpt lat="42.1324113166775" lon="-1.2596353314863427"><ele>322.0</ele><time>2026-03-30T17:36:16Z</time></trkpt><trkpt lat="42.13241311799691" lon="-1.2592675823427186"><ele>322.0</ele><time>2026-03-30T17:36:17Z</time></trkpt><trkpt lat="42.1324165651839" lon="-1.2588990569399778"><ele>322.0</ele><time>2026-03-30T17:36:18Z</time></trkpt><trkpt lat="42.13241877542261" lon="-1.25852915662526"><ele>322.0</ele><time>2026-03-30T17:36:19Z</time></trkpt><trkpt lat="42.13241661462318" lon="-1.2581687732568363"><ele>322.0</ele><time>2026-03-30T17:36:20Z</time></trkpt><trkpt lat="42.13241641380243" lon="-1.2578118061625703"><ele>321.5</ele><time>2026-03-30T17:36:21Z</time></trkpt><trkpt lat="42.13242155832024" lon="-1.2574575606339442"><ele>321.0</ele><time>2026-03-30T17:36:22Z</time></trkpt><trkpt lat="42.132425155613575" lon="-1.2571037650796058"><ele>321.0</ele><time>2026-03-30T17:36:23Z</time></trkpt><trkpt lat="42.13242618874964" lon="-1.2567507575347685"><ele>321.0</ele><time>2026-03-30T17:36:24Z</time></trkpt><trkpt lat="42.13242996069971" lon="-1.256380973068302"><ele>321.5</ele><time>2026-03-30T17:36:25Z</time></trkpt><trkpt lat="42.13241570727748" lon="-1.2560344375349224"><ele>322.0</ele><time>2026-03-30T17:36:26Z</time></trkpt><trkpt lat="42.1324174766381" lon="-1.255660909233249"><ele>322.0</ele><time>2026-03-30T17:36:27Z</time></trkpt><trkpt lat="42.1324192285955" lon="-1.255291054535049"><ele>322.0</ele><time>2026-03-30T17:36:28Z</time></trkpt><trkpt lat="42.132420986306144" lon="-1.25491998583435"><ele>322.5</ele><time>2026-03-30T17:36:29Z</time></trkpt><trkpt lat="42.13243629730624" lon="-1.2545546329733224"><ele>323.0</ele><time>2026-03-30T17:36:30Z</time></trkpt><trkpt lat="42.13244086610776" lon="-1.2541993348925846"><ele>323.5</ele><time>2026-03-30T17:36:31Z</time></trkpt><trkpt lat="42.1324261820231" lon="-1.2538231214130178"><ele>324.0</ele><time>2026-03-30T17:36:32Z</time></trkpt><trkpt lat="42.132440491077645" lon="-1.2534693958978602"><ele>326.0</ele><time>2026-03-30T17:36:33Z</time></trkpt><trkpt lat="42.13244313399071" lon="-1.2531046986279368"><ele>328.0</ele><time>2026-03-30T17:36:34Z</time></trkpt><trkpt lat="42.132441834212045" lon="-1.2527453647519369"><ele>328.0</ele><time>2026-03-30T17:36:35Z</time></trkpt><trkpt lat="42.132445120102965" lon="-1.252387917071627"><ele>328.0</ele><time>2026-03-30T17:36:36Z</time></trkpt><trkpt lat="42.13244691451527" lon="-1.2520335674163692"><ele>328.5</ele><time>2026-03-30T17:36:37Z</time></trkpt><trkpt lat="42.132431658428" lon="-1.2516791948049122"><ele>329.0</ele><time>2026-03-30T17:36:38Z</time></trkpt><trkpt lat="42.132447336069134" lon="-1.2513255369475564"><ele>329.0</ele><time>2026-03-30T17:36:39Z</time></trkpt><trkpt lat="42.13244305740842" lon="-1.2509711277132032"><ele>329.0</ele><time>2026-03-30T17:36:40Z</time></trkpt><trkpt lat="42.13244179635613" lon="-1.2506074832604297"><ele>328.5</ele><time>2026-03-30T17:36:41Z</time></trkpt><trkpt lat="42.13244496425687" lon="-1.2502394916846977"><ele>328.0</ele><time>2026-03-30T17:36:42Z</time></trkpt><trkpt lat="42.13245125539165" lon="-1.249870707917897"><ele>327.5</ele><time>2026-03-30T17:36:43Z</time></trkpt><trkpt lat="42.132437978036016" lon="-1.2495058155321228"><ele>327.0</ele><time>2026-03-30T17:36:44Z</time></trkpt><trkpt lat="42.13243921701167" lon="-1.2491507454585888"><ele>327.5</ele><time>2026-03-30T17:36:45Z</time></trkpt><trkpt lat="42.132440281039436" lon="-1.2487915872241084"><ele>328.0</ele><time>2026-03-30T17:36:46Z</time></trkpt><trkpt lat="42.132441065047225" lon="-1.24844012527488"><ele>327.5</ele><time>2026-03-30T17:36:47Z</time></trkpt><trkpt lat="42.13244186530919" lon="-1.2480813766725747"><ele>327.0</ele><time>2026-03-30T17:36:48Z</time></trkpt><trkpt lat="42.132455661024814" lon="-1.2477295131049788"><ele>327.0</ele><time>2026-03-30T17:36:49Z</time></trkpt><trkpt lat="42.13245922825007" lon="-1.2473731471368517"><ele>327.0</ele><time>2026-03-30T17:36:50Z</time></trkpt><trkpt lat="42.13244422564651" lon="-1.2470232651347886"><ele>326.5</ele><time>2026-03-30T17:36:51Z</time></trkpt><trkpt lat="42.13246058547361" lon="-1.2466762392642623"><ele>326.0</ele><time>2026-03-30T17:36:52Z</time></trkpt><trkpt lat="42.13244578258318" lon="-1.246325308938045"><ele>325.5</ele><time>2026-03-30T17:36:53Z</time></trkpt><trkpt lat="42.13246338615288" lon="-1.2459794731276357"><ele>325.0</ele><time>2026-03-30T17:36:54Z</time></trkpt><trkpt lat="42.132462770773365" lon="-1.2456208185849331"><ele>325.0</ele><time>2026-03-30T17:36:55Z</time></trkpt><trkpt lat="42.13246311266902" lon="-1.2452611194291892"><ele>325.0</ele><time>2026-03-30T17:36:56Z</time></trkpt><trkpt lat="42.1324631676362" lon="-1.2449034274919273"><ele>325.0</ele><time>2026-03-30T17:36:57Z</time></trkpt><trkpt lat="42.132463012845584" lon="-1.2445373754926858"><ele>325.0</ele><time>2026-03-30T17:36:58Z</time></trkpt><trkpt lat="42.13246695781095" lon="-1.2441714007559255"><ele>325.0</ele><time>2026-03-30T17:36:59Z</time></trkpt><trkpt lat="42.132469709907795" lon="-1.2438102493977288"><ele>325.0</ele><time>2026-03-30T17:37:00Z</time></trkpt><trkpt lat="42.13245438102274" lon="-1.243453991948266"><ele>326.5</ele><time>2026-03-30T17:37:01Z</time></trkpt><trkpt lat="42.13245529448222" lon="-1.243092298855812"><ele>328.0</ele><time>2026-03-30T17:37:02Z</time></trkpt><trkpt lat="42.132470946169555" lon="-1.242731646127784"><ele>328.0</ele><time>2026-03-30T17:37:03Z</time></trkpt><trkpt lat="42.13247192788379" lon="-1.242376539951854"><ele>328.0</ele><time>2026-03-30T17:37:04Z</time></trkpt><trkpt lat="42.13247426050653" lon="-1.2420232646726472"><ele>328.5</ele><time>2026-03-30T17:37:05Z</time></trkpt><trkpt lat="42.132458362149244" lon="-1.2416779535925473"><ele>329.0</ele><time>2026-03-30T17:37:06Z</time></trkpt><trkpt lat="42.13245913201262" lon="-1.2413331467982416"><ele>329.0</ele><time>2026-03-30T17:37:07Z</time></trkpt><trkpt lat="42.13245993104159" lon="-1.2409930442457424"><ele>329.0</ele><time>2026-03-30T17:37:08Z</time></trkpt><trkpt lat="42.1324607206537" lon="-1.2406569498541418"><ele>331.0</ele><time>2026-03-30T17:37:09Z</time></trkpt><trkpt lat="42.1324615069896" lon="-1.2403222499126343"><ele>333.0</ele><time>2026-03-30T17:37:10Z</time></trkpt><trkpt lat="42.13246229832852" lon="-1.2399854206844598"><ele>332.5</ele><time>2026-03-30T17:37:11Z</time></trkpt><trkpt lat="42.13246309255501" lon="-1.2396473623158468"><ele>332.0</ele><time>2026-03-30T17:37:12Z</time></trkpt><trkpt lat="42.132463889486964" lon="-1.2393081524318976"><ele>333.0</ele><time>2026-03-30T17:37:13Z</time></trkpt><trkpt lat="42.132464695162064" lon="-1.2389652210100135"><ele>334.0</ele><time>2026-03-30T17:37:14Z</time></trkpt><trkpt lat="42.132465493816824" lon="-1.2386252775959266"><ele>334.0</ele><time>2026-03-30T17:37:15Z</time></trkpt><trkpt lat="42.132466308357365" lon="-1.2382785729084471"><ele>334.0</ele><time>2026-03-30T17:37:16Z</time></trkpt><trkpt lat="42.13248345953128" lon="-1.237936597864718"><ele>335.5</ele><time>2026-03-30T17:37:17Z</time></trkpt><trkpt lat="42.132467948716375" lon="-1.2375964179337733"><ele>337.0</ele><time>2026-03-30T17:37:18Z</time></trkpt><trkpt lat="42.132468764848234" lon="-1.2372599274901475"><ele>337.0</ele><time>2026-03-30T17:37:19Z</time></trkpt><trkpt lat="42.13247991480653" lon="-1.2369270660181528"><ele>337.0</ele><time>2026-03-30T17:37:20Z</time></trkpt><trkpt lat="42.13247992531561" lon="-1.2365908621147574"><ele>337.5</ele><time>2026-03-30T17:37:21Z</time></trkpt><trkpt lat="42.132481505958594" lon="-1.236252939061649"><ele>338.0</ele><time>2026-03-30T17:37:22Z</time></trkpt><trkpt lat="42.132481968134854" lon="-1.2359272609616783"><ele>337.5</ele><time>2026-03-30T17:37:23Z</time></trkpt><trkpt lat="42.13248032827706" lon="-1.235618591391609"><ele>337.0</ele><time>2026-03-30T17:37:24Z</time></trkpt><trkpt lat="42.13247813654734" lon="-1.2353178222970869"><ele>337.0</ele><time>2026-03-30T17:37:25Z</time></trkpt><trkpt lat="42.13247653423535" lon="-1.235014294517981"><ele>337.0</ele><time>2026-03-30T17:37:26Z</time></trkpt><trkpt lat="42.13247524406667" lon="-1.2347070848648989"><ele>338.0</ele><time>2026-03-30T17:37:27Z</time></trkpt><trkpt lat="42.13247933578674" lon="-1.2343823071504112"><ele>339.0</ele><time>2026-03-30T17:37:28Z</time></trkpt><trkpt lat="42.13248254172001" lon="-1.2340510784932577"><ele>338.5</ele><time>2026-03-30T17:37:29Z</time></trkpt><trkpt lat="42.132483523909755" lon="-1.2337219873587824"><ele>338.0</ele><time>2026-03-30T17:37:30Z</time></trkpt><trkpt lat="42.1324875588144" lon="-1.2333888446345647"><ele>338.0</ele><time>2026-03-30T17:37:31Z</time></trkpt><trkpt lat="42.132490652512956" lon="-1.233057999518706"><ele>338.0</ele><time>2026-03-30T17:37:32Z</time></trkpt><trkpt lat="42.13248614949569" lon="-1.2327251174043106"><ele>338.0</ele><time>2026-03-30T17:37:33Z</time></trkpt><trkpt lat="42.13248540489845" lon="-1.2323902912434108"><ele>338.0</ele><time>2026-03-30T17:37:34Z</time></trkpt><trkpt lat="42.132487216637784" lon="-1.232054675705728"><ele>338.5</ele><time>2026-03-30T17:37:35Z</time></trkpt><trkpt lat="42.132483622509625" lon="-1.2317182777241271"><ele>339.0</ele><time>2026-03-30T17:37:36Z</time></trkpt><trkpt lat="42.13248354654749" lon="-1.2313777233900962"><ele>339.0</ele><time>2026-03-30T17:37:37Z</time></trkpt><trkpt lat="42.13248508149724" lon="-1.2310353837078576"><ele>339.0</ele><time>2026-03-30T17:37:38Z</time></trkpt><trkpt lat="42.13248437297349" lon="-1.230686418261388"><ele>337.5</ele><time>2026-03-30T17:37:39Z</time></trkpt><trkpt lat="42.13248726615763" lon="-1.2303388511235303"><ele>336.0</ele><time>2026-03-30T17:37:40Z</time></trkpt><trkpt lat="42.132489293245854" lon="-1.2299891400476022"><ele>335.5</ele><time>2026-03-30T17:37:41Z</time></trkpt><trkpt lat="42.132486735199365" lon="-1.2296359542995463"><ele>335.0</ele><time>2026-03-30T17:37:42Z</time></trkpt><trkpt lat="42.13248702163318" lon="-1.229276136969457"><ele>333.5</ele><time>2026-03-30T17:37:43Z</time></trkpt><trkpt lat="42.13248298180314" lon="-1.2289225619857833"><ele>332.0</ele><time>2026-03-30T17:37:44Z</time></trkpt><trkpt lat="42.132478166256746" lon="-1.2285745999796962"><ele>332.0</ele><time>2026-03-30T17:37:45Z</time></trkpt><trkpt lat="42.13248136086676" lon="-1.2282291303371582"><ele>332.0</ele><time>2026-03-30T17:37:46Z</time></trkpt><trkpt lat="42.132484494896005" lon="-1.2278770601432034"><ele>334.0</ele><time>2026-03-30T17:37:47Z</time></trkpt><trkpt lat="42.13248263680554" lon="-1.2275271719428178"><ele>336.0</ele><time>2026-03-30T17:37:48Z</time></trkpt><trkpt lat="42.13247814721201" lon="-1.22716452185034"><ele>336.0</ele><time>2026-03-30T17:37:49Z</time></trkpt><trkpt lat="42.132481230763084" lon="-1.2267929951324188"><ele>336.0</ele><time>2026-03-30T17:37:50Z</time></trkpt><trkpt lat="42.13248536688294" lon="-1.2264252925048218"><ele>336.5</ele><time>2026-03-30T17:37:51Z</time></trkpt><trkpt lat="42.132485132055585" lon="-1.226068783237605"><ele>337.0</ele><time>2026-03-30T17:37:52Z</time></trkpt><trkpt lat="42.13248772826682" lon="-1.2257061333397827"><ele>337.5</ele><time>2026-03-30T17:37:53Z</time></trkpt><trkpt lat="42.13249105868574" lon="-1.2253561296500777"><ele>338.0</ele><time>2026-03-30T17:37:54Z</time></trkpt><trkpt lat="42.13248909125572" lon="-1.224998573900361"><ele>338.5</ele><time>2026-03-30T17:37:55Z</time></trkpt><trkpt lat="42.13249009788091" lon="-1.224645473128303"><ele>339.0</ele><time>2026-03-30T17:37:56Z</time></trkpt><trkpt lat="42.13249351252113" lon="-1.2242869917332162"><ele>339.5</ele><time>2026-03-30T17:37:57Z</time></trkpt><trkpt lat="42.13249452303461" lon="-1.2239294992762444"><ele>340.0</ele><time>2026-03-30T17:37:58Z</time></trkpt><trkpt lat="42.1324953079327" lon="-1.2235630662467394"><ele>340.0</ele><time>2026-03-30T17:37:59Z</time></trkpt><trkpt lat="42.13249404117308" lon="-1.2232012738068836"><ele>340.0</ele><time>2026-03-30T17:38:00Z</time></trkpt><trkpt lat="42.13248820593442" lon="-1.2228345714249904"><ele>339.5</ele><time>2026-03-30T17:38:01Z</time></trkpt><trkpt lat="42.13248729304736" lon="-1.222469910138087"><ele>339.0</ele><time>2026-03-30T17:38:02Z</time></trkpt><trkpt lat="42.13248989907821" lon="-1.2221077598262697"><ele>338.5</ele><time>2026-03-30T17:38:03Z</time></trkpt><trkpt lat="42.132493349249415" lon="-1.2217384922579173"><ele>338.0</ele><time>2026-03-30T17:38:04Z</time></trkpt><trkpt lat="42.13249503572757" lon="-1.2213723581236156"><ele>339.0</ele><time>2026-03-30T17:38:05Z</time></trkpt><trkpt lat="42.13249395025633" lon="-1.2210124640000979"><ele>340.0</ele><time>2026-03-30T17:38:06Z</time></trkpt><trkpt lat="42.13249632721073" lon="-1.2206499871941119"><ele>340.5</ele><time>2026-03-30T17:38:07Z</time></trkpt><trkpt lat="42.13249939082491" lon="-1.2202910323840441"><ele>341.0</ele><time>2026-03-30T17:38:08Z</time></trkpt><trkpt lat="42.13249832204493" lon="-1.2199328397418367"><ele>341.0</ele><time>2026-03-30T17:38:09Z</time></trkpt><trkpt lat="42.1324968952565" lon="-1.2195712820317288"><ele>341.0</ele><time>2026-03-30T17:38:10Z</time></trkpt><trkpt lat="42.132499423048046" lon="-1.2192144921819812"><ele>341.5</ele><time>2026-03-30T17:38:11Z</time></trkpt><trkpt lat="42.13250121939433" lon="-1.218848411466053"><ele>342.0</ele><time>2026-03-30T17:38:12Z</time></trkpt><trkpt lat="42.13250172208798" lon="-1.2184847853327005"><ele>341.0</ele><time>2026-03-30T17:38:13Z</time></trkpt><trkpt lat="42.13250155133329" lon="-1.2181259594770564"><ele>340.0</ele><time>2026-03-30T17:38:14Z</time></trkpt><trkpt lat="42.13250082130908" lon="-1.21775498526981"><ele>340.0</ele><time>2026-03-30T17:38:15Z</time></trkpt><trkpt lat="42.13250239126825" lon="-1.2173916060273067"><ele>340.0</ele><time>2026-03-30T17:38:16Z</time></trkpt><trkpt lat="42.13250449995601" lon="-1.2170277945273729"><ele>340.5</ele><time>2026-03-30T17:38:17Z</time></trkpt><trkpt lat="42.132504303410414" lon="-1.2166598542842066"><ele>341.0</ele><time>2026-03-30T17:38:18Z</time></trkpt><trkpt lat="42.1325047892601" lon="-1.216292903227458"><ele>340.5</ele><time>2026-03-30T17:38:19Z</time></trkpt><trkpt lat="42.13250800092224" lon="-1.2159199579631097"><ele>340.0</ele><time>2026-03-30T17:38:20Z</time></trkpt><trkpt lat="42.13251165180246" lon="-1.2155432349099213"><ele>340.0</ele><time>2026-03-30T17:38:21Z</time></trkpt><trkpt lat="42.13251281048288" lon="-1.2151724923722684"><ele>340.0</ele><time>2026-03-30T17:38:22Z</time></trkpt><trkpt lat="42.132513915836455" lon="-1.214793285023291"><ele>341.0</ele><time>2026-03-30T17:38:23Z</time></trkpt><trkpt lat="42.13251561362916" lon="-1.2144233870195904"><ele>342.0</ele><time>2026-03-30T17:38:24Z</time></trkpt><trkpt lat="42.132517604536446" lon="-1.2140526615521419"><ele>341.0</ele><time>2026-03-30T17:38:25Z</time></trkpt><trkpt lat="42.132522102161744" lon="-1.213680627697097"><ele>340.0</ele><time>2026-03-30T17:38:26Z</time></trkpt><trkpt lat="42.13252798418944" lon="-1.2133109681312118"><ele>339.5</ele><time>2026-03-30T17:38:27Z</time></trkpt><trkpt lat="42.132529391391365" lon="-1.2129577344695144"><ele>339.0</ele><time>2026-03-30T17:38:28Z</time></trkpt><trkpt lat="42.13252894000782" lon="-1.212609734416898"><ele>339.5</ele><time>2026-03-30T17:38:29Z</time></trkpt><trkpt lat="42.13252870168261" lon="-1.212271510766082"><ele>340.0</ele><time>2026-03-30T17:38:30Z</time></trkpt><trkpt lat="42.13253854097201" lon="-1.2119164011567864"><ele>340.0</ele><time>2026-03-30T17:38:31Z</time></trkpt><trkpt lat="42.132543054960806" lon="-1.211552341331555"><ele>340.0</ele><time>2026-03-30T17:38:32Z</time></trkpt><trkpt lat="42.1325426881182" lon="-1.2111822713621587"><ele>338.5</ele><time>2026-03-30T17:38:33Z</time></trkpt><trkpt lat="42.132528394971395" lon="-1.2108152311092057"><ele>337.0</ele><time>2026-03-30T17:38:34Z</time></trkpt><trkpt lat="42.132529461977214" lon="-1.2104510376418784"><ele>337.0</ele><time>2026-03-30T17:38:35Z</time></trkpt><trkpt lat="42.13254555718853" lon="-1.2100848031459859"><ele>337.0</ele><time>2026-03-30T17:38:36Z</time></trkpt><trkpt lat="42.13254205395197" lon="-1.209720933835907"><ele>337.0</ele><time>2026-03-30T17:38:37Z</time></trkpt><trkpt lat="42.13254385580238" lon="-1.2093561813980096"><ele>337.0</ele><time>2026-03-30T17:38:38Z</time></trkpt><trkpt lat="42.1325450127322" lon="-1.2089830179627676"><ele>337.0</ele><time>2026-03-30T17:38:39Z</time></trkpt><trkpt lat="42.13254483896772" lon="-1.2086092445511942"><ele>337.0</ele><time>2026-03-30T17:38:40Z</time></trkpt><trkpt lat="42.132547424324144" lon="-1.2082355804538065"><ele>337.5</ele><time>2026-03-30T17:38:41Z</time></trkpt><trkpt lat="42.132534762321875" lon="-1.2078649281609912"><ele>338.0</ele><time>2026-03-30T17:38:42Z</time></trkpt><trkpt lat="42.132535359465024" lon="-1.2074994381314588"><ele>338.0</ele><time>2026-03-30T17:38:43Z</time></trkpt><trkpt lat="42.132550338585354" lon="-1.2071392051341838"><ele>338.0</ele><time>2026-03-30T17:38:44Z</time></trkpt><trkpt lat="42.13254667357409" lon="-1.206777265888087"><ele>339.0</ele><time>2026-03-30T17:38:45Z</time></trkpt><trkpt lat="42.132547026816425" lon="-1.2064141922605804"><ele>340.0</ele><time>2026-03-30T17:38:46Z</time></trkpt><trkpt lat="42.13254580064872" lon="-1.2060515981868518"><ele>340.0</ele><time>2026-03-30T17:38:47Z</time></trkpt><trkpt lat="42.13254619882266" lon="-1.2056912758943412"><ele>340.0</ele><time>2026-03-30T17:38:48Z</time></trkpt><trkpt lat="42.132548342704155" lon="-1.2053225906660143"><ele>340.0</ele><time>2026-03-30T17:38:49Z</time></trkpt><trkpt lat="42.13254854294111" lon="-1.2049589072504276"><ele>340.0</ele><time>2026-03-30T17:38:50Z</time></trkpt><trkpt lat="42.132550168552584" lon="-1.2045838010355088"><ele>340.0</ele><time>2026-03-30T17:38:51Z</time></trkpt><trkpt lat="42.13255197357814" lon="-1.2042121269435064"><ele>340.0</ele><time>2026-03-30T17:38:52Z</time></trkpt><trkpt lat="42.132551082243815" lon="-1.2038267883558909"><ele>340.0</ele><time>2026-03-30T17:38:53Z</time></trkpt><trkpt lat="42.13255000615368" lon="-1.20342728642015"><ele>340.0</ele><time>2026-03-30T17:38:54Z</time></trkpt><trkpt lat="42.13255276695904" lon="-1.2030361325661685"><ele>340.0</ele><time>2026-03-30T17:38:55Z</time></trkpt><trkpt lat="42.13255707100617" lon="-1.2026675503200424"><ele>340.0</ele><time>2026-03-30T17:38:56Z</time></trkpt><trkpt lat="42.13255763865708" lon="-1.2023017637869553"><ele>339.0</ele><time>2026-03-30T17:38:57Z</time></trkpt><trkpt lat="42.13255424067329" lon="-1.20194955725303"><ele>338.0</ele><time>2026-03-30T17:38:58Z</time></trkpt><trkpt lat="42.13255833643273" lon="-1.2015877411623694"><ele>338.0</ele><time>2026-03-30T17:38:59Z</time></trkpt><trkpt lat="42.13256238005454" lon="-1.20122291124009"><ele>338.0</ele><time>2026-03-30T17:39:00Z</time></trkpt><trkpt lat="42.132564667249596" lon="-1.2008560730836089"><ele>338.5</ele><time>2026-03-30T17:39:01Z</time></trkpt><trkpt lat="42.13254918029767" lon="-1.2004897716743232"><ele>339.0</ele><time>2026-03-30T17:39:02Z</time></trkpt><trkpt lat="42.132549837743966" lon="-1.2001228985546277"><ele>339.0</ele><time>2026-03-30T17:39:03Z</time></trkpt><trkpt lat="42.13255047175397" lon="-1.1997553756965147"><ele>339.0</ele><time>2026-03-30T17:39:04Z</time></trkpt><trkpt lat="42.132551110956015" lon="-1.1993848431497012"><ele>339.0</ele><time>2026-03-30T17:39:05Z</time></trkpt><trkpt lat="42.132551749620156" lon="-1.199014622364552"><ele>339.0</ele><time>2026-03-30T17:39:06Z</time></trkpt><trkpt lat="42.13256411309018" lon="-1.1986422890577222"><ele>339.0</ele><time>2026-03-30T17:39:07Z</time></trkpt><trkpt lat="42.13256229471388" lon="-1.1982675638107796"><ele>339.0</ele><time>2026-03-30T17:39:08Z</time></trkpt><trkpt lat="42.13256417364683" lon="-1.1978952639459355"><ele>338.5</ele><time>2026-03-30T17:39:09Z</time></trkpt><trkpt lat="42.132566135226234" lon="-1.1975190800425672"><ele>338.0</ele><time>2026-03-30T17:39:10Z</time></trkpt><trkpt lat="42.13256780072854" lon="-1.1971424619989812"><ele>338.0</ele><time>2026-03-30T17:39:11Z</time></trkpt><trkpt lat="42.13256693497532" lon="-1.1967712020565362"><ele>338.0</ele><time>2026-03-30T17:39:12Z</time></trkpt><trkpt lat="42.13256915517967" lon="-1.196400446612253"><ele>338.5</ele><time>2026-03-30T17:39:13Z</time></trkpt><trkpt lat="42.1325672898372" lon="-1.1960348423025202"><ele>339.0</ele><time>2026-03-30T17:39:14Z</time></trkpt><trkpt lat="42.13256884044249" lon="-1.1956733898064769"><ele>339.5</ele><time>2026-03-30T17:39:15Z</time></trkpt><trkpt lat="42.132570994809626" lon="-1.19529953324945"><ele>340.0</ele><time>2026-03-30T17:39:16Z</time></trkpt><trkpt lat="42.13256968705338" lon="-1.194920239464199"><ele>339.5</ele><time>2026-03-30T17:39:17Z</time></trkpt><trkpt lat="42.132569612204264" lon="-1.194542038814963"><ele>339.0</ele><time>2026-03-30T17:39:18Z</time></trkpt><trkpt lat="42.13256837078643" lon="-1.1941721484763819"><ele>339.5</ele><time>2026-03-30T17:39:19Z</time></trkpt><trkpt lat="42.132568389411574" lon="-1.1938067072268335"><ele>340.0</ele><time>2026-03-30T17:39:20Z</time></trkpt><trkpt lat="42.132569734120395" lon="-1.1934393036327444"><ele>339.5</ele><time>2026-03-30T17:39:21Z</time></trkpt><trkpt lat="42.132570212938745" lon="-1.1930653976038819"><ele>339.0</ele><time>2026-03-30T17:39:22Z</time></trkpt><trkpt lat="42.132572848290096" lon="-1.1926947333150775"><ele>338.5</ele><time>2026-03-30T17:39:23Z</time></trkpt><trkpt lat="42.13257759495823" lon="-1.1923224039321443"><ele>338.0</ele><time>2026-03-30T17:39:24Z</time></trkpt><trkpt lat="42.1325655862693" lon="-1.1919458948316586"><ele>338.0</ele><time>2026-03-30T17:39:25Z</time></trkpt><trkpt lat="42.13258019562809" lon="-1.1915731384789274"><ele>338.0</ele><time>2026-03-30T17:39:26Z</time></trkpt><trkpt lat="42.132576470993165" lon="-1.1912019589037925"><ele>337.5</ele><time>2026-03-30T17:39:27Z</time></trkpt><trkpt lat="42.13257586262604" lon="-1.1908259916644799"><ele>337.0</ele><time>2026-03-30T17:39:28Z</time></trkpt><trkpt lat="42.13257283963956" lon="-1.190456893785911"><ele>336.5</ele><time>2026-03-30T17:39:29Z</time></trkpt><trkpt lat="42.13257617714558" lon="-1.1900754141867531"><ele>336.0</ele><time>2026-03-30T17:39:30Z</time></trkpt><trkpt lat="42.13257613639067" lon="-1.1896916442858703"><ele>336.0</ele><time>2026-03-30T17:39:31Z</time></trkpt><trkpt lat="42.13257501674408" lon="-1.189312222869835"><ele>336.0</ele><time>2026-03-30T17:39:32Z</time></trkpt><trkpt lat="42.132580753385135" lon="-1.1889388449983174"><ele>335.5</ele><time>2026-03-30T17:39:33Z</time></trkpt><trkpt lat="42.13258236024288" lon="-1.188562296704571"><ele>335.0</ele><time>2026-03-30T17:39:34Z</time></trkpt><trkpt lat="42.132577137424214" lon="-1.1881852520277911"><ele>336.0</ele><time>2026-03-30T17:39:35Z</time></trkpt><trkpt lat="42.132580459638476" lon="-1.1878030887197848"><ele>337.0</ele><time>2026-03-30T17:39:36Z</time></trkpt><trkpt lat="42.132582474958724" lon="-1.18743003021794"><ele>337.5</ele><time>2026-03-30T17:39:37Z</time></trkpt><trkpt lat="42.132580213959365" lon="-1.1870564240835224"><ele>338.0</ele><time>2026-03-30T17:39:38Z</time></trkpt><trkpt lat="42.13257923040895" lon="-1.1866856946035822"><ele>338.5</ele><time>2026-03-30T17:39:39Z</time></trkpt><trkpt lat="42.1325800952415" lon="-1.1863134486707012"><ele>339.0</ele><time>2026-03-30T17:39:40Z</time></trkpt><trkpt lat="42.13258238355669" lon="-1.1859406537335604"><ele>338.5</ele><time>2026-03-30T17:39:41Z</time></trkpt><trkpt lat="42.13258361625787" lon="-1.1855776666978468"><ele>338.0</ele><time>2026-03-30T17:39:42Z</time></trkpt><trkpt lat="42.13258615391778" lon="-1.1852244812750632"><ele>338.0</ele><time>2026-03-30T17:39:43Z</time></trkpt><trkpt lat="42.132586834931196" lon="-1.1848663547504772"><ele>338.0</ele><time>2026-03-30T17:39:44Z</time></trkpt><trkpt lat="42.13258792483474" lon="-1.1845425867301476"><ele>337.6666666666667</ele><time>2026-03-30T17:39:45Z</time></trkpt><trkpt lat="42.13258269870904" lon="-1.184232050741185"><ele>337.3333333333333</ele><time>2026-03-30T17:39:46Z</time></trkpt><trkpt lat="42.13258342542059" lon="-1.183940061129085"><ele>337.0</ele><time>2026-03-30T17:39:47Z</time></trkpt><trkpt lat="42.132587090988075" lon="-1.1836571322549707"><ele>337.0</ele><time>2026-03-30T17:39:48Z</time></trkpt><trkpt lat="42.13259070325606" lon="-1.1833911003471769"><ele>337.0</ele><time>2026-03-30T17:39:49Z</time></trkpt><trkpt lat="42.13259012400584" lon="-1.1831644512310149"><ele>337.0</ele><time>2026-03-30T17:39:50Z</time></trkpt><trkpt lat="42.1325709376502" lon="-1.1829592830737827"><ele>336.66666666666663</ele><time>2026-03-30T17:39:51Z</time></trkpt><trkpt lat="42.13250492150664" lon="-1.1827630033280172"><ele>336.3333333333333</ele><time>2026-03-30T17:39:52Z</time></trkpt><trkpt lat="42.132415850986405" lon="-1.1825880676897935"><ele>336.0</ele><time>2026-03-30T17:39:53Z</time></trkpt><trkpt lat="42.132346491737955" lon="-1.1824298997366551"><ele>336.0</ele><time>2026-03-30T17:39:54Z</time></trkpt><trkpt lat="42.13237073510583" lon="-1.1822222059298646"><ele>336.0</ele><time>2026-03-30T17:39:55Z</time></trkpt><trkpt lat="42.13244959494615" lon="-1.1820262493534885"><ele>336.0</ele><time>2026-03-30T17:39:56Z</time></trkpt><trkpt lat="42.13254906287328" lon="-1.1818232472327161"><ele>335.6666666666667</ele><time>2026-03-30T17:39:57Z</time></trkpt><trkpt lat="42.132614148728365" lon="-1.1815800768097533"><ele>335.33333333333337</ele><time>2026-03-30T17:39:58Z</time></trkpt><trkpt lat="42.13258319738647" lon="-1.181298990845349"><ele>335.0</ele><time>2026-03-30T17:39:59Z</time></trkpt><trkpt lat="42.132583533867795" lon="-1.1809930116834508"><ele>334.5</ele><time>2026-03-30T17:40:00Z</time></trkpt><trkpt lat="42.13259010328161" lon="-1.180655638009807"><ele>334.0</ele><time>2026-03-30T17:40:01Z</time></trkpt><trkpt lat="42.132594791465635" lon="-1.180345152164138"><ele>334.0</ele><time>2026-03-30T17:40:02Z</time></trkpt><trkpt lat="42.13259383436921" lon="-1.1800539060871496"><ele>334.0</ele><time>2026-03-30T17:40:03Z</time></trkpt><trkpt lat="42.13259412801166" lon="-1.179768354276646"><ele>334.0</ele><time>2026-03-30T17:40:04Z</time></trkpt><trkpt lat="42.132597904264244" lon="-1.1794678171854358"><ele>334.0</ele><time>2026-03-30T17:40:05Z</time></trkpt><trkpt lat="42.13260056627694" lon="-1.1791308037530561"><ele>334.0</ele><time>2026-03-30T17:40:06Z</time></trkpt><trkpt lat="42.13260310091199" lon="-1.1787762833291997"><ele>334.5</ele><time>2026-03-30T17:40:07Z</time></trkpt><trkpt lat="42.13260087559709" lon="-1.1784577834076526"><ele>335.0</ele><time>2026-03-30T17:40:08Z</time></trkpt><trkpt lat="42.132598055492686" lon="-1.1781572498190571"><ele>335.33333333333337</ele><time>2026-03-30T17:40:09Z</time></trkpt><trkpt lat="42.13259832173583" lon="-1.177853130707403"><ele>335.6666666666667</ele><time>2026-03-30T17:40:10Z</time></trkpt><trkpt lat="42.13259863848368" lon="-1.177555061035715"><ele>336.0</ele><time>2026-03-30T17:40:11Z</time></trkpt><trkpt lat="42.13259121621896" lon="-1.1772546314171952"><ele>336.0</ele><time>2026-03-30T17:40:12Z</time></trkpt><trkpt lat="42.13258187327461" lon="-1.1769653529297703"><ele>336.0</ele><time>2026-03-30T17:40:13Z</time></trkpt><trkpt lat="42.13257821705692" lon="-1.1766553960660122"><ele>336.0</ele><time>2026-03-30T17:40:14Z</time></trkpt><trkpt lat="42.13258270743635" lon="-1.1763405984197468"><ele>335.6666666666667</ele><time>2026-03-30T17:40:15Z</time></trkpt><trkpt lat="42.13258638084173" lon="-1.1760459740352103"><ele>335.33333333333337</ele><time>2026-03-30T17:40:16Z</time></trkpt><trkpt lat="42.13258395103656" lon="-1.1757598395757352"><ele>335.0</ele><time>2026-03-30T17:40:17Z</time></trkpt><trkpt lat="42.13258053843137" lon="-1.1754712078070517"><ele>335.0</ele><time>2026-03-30T17:40:18Z</time></trkpt><trkpt lat="42.13258017949125" lon="-1.1751797874499097"><ele>335.0</ele><time>2026-03-30T17:40:19Z</time></trkpt><trkpt lat="42.13258365899561" lon="-1.1748863003879388"><ele>335.0</ele><time>2026-03-30T17:40:20Z</time></trkpt><trkpt lat="42.13258690922285" lon="-1.174588906261031"><ele>335.33333333333337</ele><time>2026-03-30T17:40:21Z</time></trkpt><trkpt lat="42.13258739481723" lon="-1.1742910233264878"><ele>335.6666666666667</ele><time>2026-03-30T17:40:22Z</time></trkpt><trkpt lat="42.13258558392046" lon="-1.1739900764440077"><ele>336.0</ele><time>2026-03-30T17:40:23Z</time></trkpt><trkpt lat="42.13258772174589" lon="-1.173689306306833"><ele>336.0</ele><time>2026-03-30T17:40:24Z</time></trkpt><trkpt lat="42.13259264120902" lon="-1.1733906041199662"><ele>336.0</ele><time>2026-03-30T17:40:25Z</time></trkpt><trkpt lat="42.13259516250596" lon="-1.1730899939268897"><ele>336.0</ele><time>2026-03-30T17:40:26Z</time></trkpt><trkpt lat="42.132591173597966" lon="-1.1727920995840317"><ele>335.5</ele><time>2026-03-30T17:40:27Z</time></trkpt><trkpt lat="42.132587151201996" lon="-1.1724635382057056"><ele>335.0</ele><time>2026-03-30T17:40:28Z</time></trkpt><trkpt lat="42.13258969197098" lon="-1.1721173754394199"><ele>334.6666666666667</ele><time>2026-03-30T17:40:29Z</time></trkpt><trkpt lat="42.132591469077994" lon="-1.1718084187584532"><ele>334.3333333333333</ele><time>2026-03-30T17:40:30Z</time></trkpt><trkpt lat="42.13259383292765" lon="-1.171511358306873"><ele>334.0</ele><time>2026-03-30T17:40:31Z</time></trkpt><trkpt lat="42.132595846298926" lon="-1.1712145635942985"><ele>334.0</ele><time>2026-03-30T17:40:32Z</time></trkpt><trkpt lat="42.13259655112157" lon="-1.1709097203790573"><ele>334.0</ele><time>2026-03-30T17:40:33Z</time></trkpt><trkpt lat="42.1325936191535" lon="-1.1706044120385455"><ele>334.0</ele><time>2026-03-30T17:40:34Z</time></trkpt><trkpt lat="42.132592438223455" lon="-1.1703000287273004"><ele>334.0</ele><time>2026-03-30T17:40:35Z</time></trkpt><trkpt lat="42.13259526933808" lon="-1.169994257146657"><ele>335.0</ele><time>2026-03-30T17:40:36Z</time></trkpt><trkpt lat="42.132595690079945" lon="-1.1696923524686091"><ele>336.0</ele><time>2026-03-30T17:40:37Z</time></trkpt><trkpt lat="42.13259551426835" lon="-1.1693813609433892"><ele>336.0</ele><time>2026-03-30T17:40:38Z</time></trkpt><trkpt lat="42.13259378576749" lon="-1.1690711802802518"><ele>336.0</ele><time>2026-03-30T17:40:39Z</time></trkpt><trkpt lat="42.13259115750263" lon="-1.16876149821509"><ele>336.0</ele><time>2026-03-30T17:40:40Z</time></trkpt><trkpt lat="42.13258102107736" lon="-1.168455029364304"><ele>336.0</ele><time>2026-03-30T17:40:41Z</time></trkpt><trkpt lat="42.1325571659784" lon="-1.1681547909008938"><ele>335.0</ele><time>2026-03-30T17:40:42Z</time></trkpt><trkpt lat="42.13253361315053" lon="-1.1678440785124427"><ele>334.0</ele><time>2026-03-30T17:40:43Z</time></trkpt><trkpt lat="42.132512177333034" lon="-1.1675207768921374"><ele>332.5</ele><time>2026-03-30T17:40:44Z</time></trkpt><trkpt lat="42.132494432732976" lon="-1.1671788675740635"><ele>331.0</ele><time>2026-03-30T17:40:45Z</time></trkpt><trkpt lat="42.13247317954699" lon="-1.1668415715366982"><ele>329.5</ele><time>2026-03-30T17:40:46Z</time></trkpt><trkpt lat="42.13245670123442" lon="-1.166493258937649"><ele>328.0</ele><time>2026-03-30T17:40:47Z</time></trkpt><trkpt lat="42.132420706679575" lon="-1.1661447819519088"><ele>328.5</ele><time>2026-03-30T17:40:48Z</time></trkpt><trkpt lat="42.132388260754766" lon="-1.1657711460228855"><ele>329.0</ele><time>2026-03-30T17:40:49Z</time></trkpt><trkpt lat="42.13235219431532" lon="-1.1653717515925335"><ele>328.0</ele><time>2026-03-30T17:40:50Z</time></trkpt><trkpt lat="42.13231862508466" lon="-1.164999011297848"><ele>327.0</ele><time>2026-03-30T17:40:51Z</time></trkpt><trkpt lat="42.13226165046053" lon="-1.16464496573936"><ele>325.0</ele><time>2026-03-30T17:40:52Z</time></trkpt><trkpt lat="42.13222641378319" lon="-1.164295585501867"><ele>323.0</ele><time>2026-03-30T17:40:53Z</time></trkpt><trkpt lat="42.13221133212343" lon="-1.1639393678712986"><ele>322.0</ele><time>2026-03-30T17:40:54Z</time></trkpt><trkpt lat="42.13218093615648" lon="-1.163597486141107"><ele>321.0</ele><time>2026-03-30T17:40:55Z</time></trkpt><trkpt lat="42.13215372860303" lon="-1.1632685841556476"><ele>322.5</ele><time>2026-03-30T17:40:56Z</time></trkpt><trkpt lat="42.13212570639958" lon="-1.162939254540523"><ele>324.0</ele><time>2026-03-30T17:40:57Z</time></trkpt><trkpt lat="42.132094930247845" lon="-1.1626016060946591"><ele>325.0</ele><time>2026-03-30T17:40:58Z</time></trkpt><trkpt lat="42.13205782544743" lon="-1.1622678051923414"><ele>326.0</ele><time>2026-03-30T17:40:59Z</time></trkpt><trkpt lat="42.13202186125282" lon="-1.161934154413848"><ele>326.0</ele><time>2026-03-30T17:41:00Z</time></trkpt><trkpt lat="42.131975612161874" lon="-1.1615771571394455"><ele>326.0</ele><time>2026-03-30T17:41:01Z</time></trkpt><trkpt lat="42.13191039204686" lon="-1.1612236012905908"><ele>326.0</ele><time>2026-03-30T17:41:02Z</time></trkpt><trkpt lat="42.13182950773725" lon="-1.1608962388838133"><ele>326.0</ele><time>2026-03-30T17:41:03Z</time></trkpt><trkpt lat="42.131743270227496" lon="-1.1605982444791425"><ele>326.0</ele><time>2026-03-30T17:41:04Z</time></trkpt><trkpt lat="42.13165627811348" lon="-1.1603216565572794"><ele>326.0</ele><time>2026-03-30T17:41:05Z</time></trkpt><trkpt lat="42.13157153870028" lon="-1.1600515873251989"><ele>326.0</ele><time>2026-03-30T17:41:06Z</time></trkpt><trkpt lat="42.13148861222663" lon="-1.1597675429956078"><ele>325.33333333333337</ele><time>2026-03-30T17:41:07Z</time></trkpt><trkpt lat="42.13140478558654" lon="-1.159481884424269"><ele>324.6666666666667</ele><time>2026-03-30T17:41:08Z</time></trkpt><trkpt lat="42.13132056938769" lon="-1.159211332205286"><ele>324.0</ele><time>2026-03-30T17:41:09Z</time></trkpt><trkpt lat="42.131237225040685" lon="-1.1589453055847663"><ele>324.0</ele><time>2026-03-30T17:41:10Z</time></trkpt><trkpt lat="42.131162526391726" lon="-1.1587050402219468"><ele>324.0</ele><time>2026-03-30T17:41:11Z</time></trkpt><trkpt lat="42.131073533677416" lon="-1.158507103800083"><ele>324.0</ele><time>2026-03-30T17:41:12Z</time></trkpt><trkpt lat="42.13095519547147" lon="-1.1583462746769773"><ele>324.0</ele><time>2026-03-30T17:41:13Z</time></trkpt><trkpt lat="42.130863453040675" lon="-1.1582123076353277"><ele>324.0</ele><time>2026-03-30T17:41:14Z</time></trkpt><trkpt lat="42.13081839522205" lon="-1.1580114514747377"><ele>324.0</ele><time>2026-03-30T17:41:15Z</time></trkpt><trkpt lat="42.130821273838066" lon="-1.1577719338831622"><ele>324.0</ele><time>2026-03-30T17:41:16Z</time></trkpt><trkpt lat="42.13081369500054" lon="-1.1575031873533381"><ele>324.0</ele><time>2026-03-30T17:41:17Z</time></trkpt><trkpt lat="42.130728383248304" lon="-1.1572373345385663"><ele>324.0</ele><time>2026-03-30T17:41:18Z</time></trkpt><trkpt lat="42.13063468607935" lon="-1.1569554268594815"><ele>322.0</ele><time>2026-03-30T17:41:19Z</time></trkpt><trkpt lat="42.13053465288591" lon="-1.1566666263199046"><ele>320.0</ele><time>2026-03-30T17:41:20Z</time></trkpt><trkpt lat="42.13044985073109" lon="-1.1563676256128923"><ele>319.0</ele><time>2026-03-30T17:41:21Z</time></trkpt><trkpt lat="42.130360747953375" lon="-1.1560731030545517"><ele>318.0</ele><time>2026-03-30T17:41:22Z</time></trkpt><trkpt lat="42.130264698774205" lon="-1.155770546766594"><ele>317.5</ele><time>2026-03-30T17:41:23Z</time></trkpt><trkpt lat="42.13017344886369" lon="-1.1554715578078578"><ele>317.0</ele><time>2026-03-30T17:41:24Z</time></trkpt><trkpt lat="42.130082822451065" lon="-1.1551662223186472"><ele>317.0</ele><time>2026-03-30T17:41:25Z</time></trkpt><trkpt lat="42.12999226735418" lon="-1.1548687640346145"><ele>317.0</ele><time>2026-03-30T17:41:26Z</time></trkpt><trkpt lat="42.12990023550594" lon="-1.1545723976229612"><ele>316.5</ele><time>2026-03-30T17:41:27Z</time></trkpt><trkpt lat="42.12980876676952" lon="-1.1542786796397582"><ele>316.0</ele><time>2026-03-30T17:41:28Z</time></trkpt><trkpt lat="42.129721324307894" lon="-1.1539891930325514"><ele>316.0</ele><time>2026-03-30T17:41:29Z</time></trkpt><trkpt lat="42.12963568866024" lon="-1.1537052109451376"><ele>316.0</ele><time>2026-03-30T17:41:30Z</time></trkpt><trkpt lat="42.12954840928568" lon="-1.1534166506676748"><ele>315.5</ele><time>2026-03-30T17:41:31Z</time></trkpt><trkpt lat="42.12946127558842" lon="-1.1531356795760965"><ele>315.0</ele><time>2026-03-30T17:41:32Z</time></trkpt><trkpt lat="42.12937496198457" lon="-1.1528538609287973"><ele>315.0</ele><time>2026-03-30T17:41:33Z</time></trkpt><trkpt lat="42.1292932172675" lon="-1.152575446674689"><ele>315.0</ele><time>2026-03-30T17:41:34Z</time></trkpt><trkpt lat="42.129212212248106" lon="-1.1523121530928178"><ele>315.0</ele><time>2026-03-30T17:41:35Z</time></trkpt><trkpt lat="42.12913284252023" lon="-1.1520631907523973"><ele>315.0</ele><time>2026-03-30T17:41:36Z</time></trkpt><trkpt lat="42.12906532224765" lon="-1.1518433858914945"><ele>315.0</ele><time>2026-03-30T17:41:37Z</time></trkpt><trkpt lat="42.12900372766234" lon="-1.1516438680872507"><ele>315.0</ele><time>2026-03-30T17:41:38Z</time></trkpt><trkpt lat="42.12894427232435" lon="-1.1514738370097106"><ele>315.75</ele><time>2026-03-30T17:41:39Z</time></trkpt><trkpt lat="42.12888468796946" lon="-1.151340118448844"><ele>316.5</ele><time>2026-03-30T17:41:40Z</time></trkpt><trkpt lat="42.12880742892535" lon="-1.1512582535520117"><ele>317.25</ele><time>2026-03-30T17:41:41Z</time></trkpt><trkpt lat="42.12871230120954" lon="-1.151187907635961"><ele>318.0</ele><time>2026-03-30T17:41:42Z</time></trkpt><trkpt lat="42.12856009850473" lon="-1.151144060455996"><ele>318.0</ele><time>2026-03-30T17:41:43Z</time></trkpt><trkpt lat="42.12846287054213" lon="-1.1509969854977355"><ele>318.0</ele><time>2026-03-30T17:41:44Z</time></trkpt><trkpt lat="42.128397273801376" lon="-1.1508146470451563"><ele>318.0</ele><time>2026-03-30T17:41:45Z</time></trkpt><trkpt lat="42.128379460824554" lon="-1.1506078997800333"><ele>317.6666666666667</ele><time>2026-03-30T17:41:46Z</time></trkpt><trkpt lat="42.12841141534156" lon="-1.150394161831364"><ele>317.33333333333337</ele><time>2026-03-30T17:41:47Z</time></trkpt><trkpt lat="42.12850043949592" lon="-1.150220918234651"><ele>317.0</ele><time>2026-03-30T17:41:48Z</time></trkpt><trkpt lat="42.12850954655893" lon="-1.1499744174276025"><ele>317.0</ele><time>2026-03-30T17:41:49Z</time></trkpt><trkpt lat="42.12845295345616" lon="-1.1497690029161198"><ele>317.0</ele><time>2026-03-30T17:41:50Z</time></trkpt><trkpt lat="42.12839134539631" lon="-1.1495522396721787"><ele>317.0</ele><time>2026-03-30T17:41:51Z</time></trkpt><trkpt lat="42.12829958197308" lon="-1.1493303277602953"><ele>317.33333333333337</ele><time>2026-03-30T17:41:52Z</time></trkpt><trkpt lat="42.12821648826934" lon="-1.1491036922088833"><ele>317.6666666666667</ele><time>2026-03-30T17:41:53Z</time></trkpt><trkpt lat="42.12815278323551" lon="-1.1488593662106097"><ele>318.0</ele><time>2026-03-30T17:41:54Z</time></trkpt><trkpt lat="42.128096691699895" lon="-1.148639686229888"><ele>318.0</ele><time>2026-03-30T17:41:55Z</time></trkpt><trkpt lat="42.12804434522317" lon="-1.1484529849964964"><ele>318.0</ele><time>2026-03-30T17:41:56Z</time></trkpt><trkpt lat="42.12799053392975" lon="-1.148286902236451"><ele>318.0</ele><time>2026-03-30T17:41:57Z</time></trkpt><trkpt lat="42.12794135597244" lon="-1.1481314996570822"><ele>318.0</ele><time>2026-03-30T17:41:58Z</time></trkpt><trkpt lat="42.127898706629196" lon="-1.1479877744726354"><ele>317.8</ele><time>2026-03-30T17:41:59Z</time></trkpt><trkpt lat="42.12785636910714" lon="-1.1478571910218318"><ele>317.6</ele><time>2026-03-30T17:42:00Z</time></trkpt><trkpt lat="42.12781651340604" lon="-1.14773494104966"><ele>317.4</ele><time>2026-03-30T17:42:01Z</time></trkpt><trkpt lat="42.12778077504906" lon="-1.147626473613557"><ele>317.2</ele><time>2026-03-30T17:42:02Z</time></trkpt><trkpt lat="42.12775228506557" lon="-1.1475240865869627"><ele>317.0</ele><time>2026-03-30T17:42:03Z</time></trkpt><trkpt lat="42.12773185629002" lon="-1.1474257016880318"><ele>317.1666666666667</ele><time>2026-03-30T17:42:04Z</time></trkpt><trkpt lat="42.12772369523211" lon="-1.1473308509295608"><ele>317.33333333333337</ele><time>2026-03-30T17:42:05Z</time></trkpt><trkpt lat="42.127714835029465" lon="-1.147242984651492"><ele>317.5</ele><time>2026-03-30T17:42:06Z</time></trkpt><trkpt lat="42.12768251732154" lon="-1.1471525402850589"><ele>317.6666666666667</ele><time>2026-03-30T17:42:07Z</time></trkpt><trkpt lat="42.12762335356275" lon="-1.1470648171733433"><ele>317.8333333333333</ele><time>2026-03-30T17:42:08Z</time></trkpt><trkpt lat="42.12755562530629" lon="-1.1469713467479326"><ele>318.0</ele><time>2026-03-30T17:42:09Z</time></trkpt><trkpt lat="42.12751015400688" lon="-1.1468502673272378"><ele>318.0</ele><time>2026-03-30T17:42:10Z</time></trkpt><trkpt lat="42.127536743563674" lon="-1.146712865469161"><ele>318.0</ele><time>2026-03-30T17:42:11Z</time></trkpt><trkpt lat="42.12752345125087" lon="-1.1465470596444682"><ele>318.0</ele><time>2026-03-30T17:42:12Z</time></trkpt><trkpt lat="42.127497966041666" lon="-1.1463821894754982"><ele>318.0</ele><time>2026-03-30T17:42:13Z</time></trkpt><trkpt lat="42.12744534884295" lon="-1.1462512308443247"><ele>317.75</ele><time>2026-03-30T17:42:14Z</time></trkpt><trkpt lat="42.127333597869125" lon="-1.146165115728756"><ele>317.5</ele><time>2026-03-30T17:42:15Z</time></trkpt><trkpt lat="42.1272611238933" lon="-1.1460381775611865"><ele>317.25</ele><time>2026-03-30T17:42:16Z</time></trkpt><trkpt lat="42.12719028652793" lon="-1.1459092700761295"><ele>317.0</ele><time>2026-03-30T17:42:17Z</time></trkpt><trkpt lat="42.12713627567862" lon="-1.145768434495823"><ele>316.8</ele><time>2026-03-30T17:42:18Z</time></trkpt><trkpt lat="42.127064511353865" lon="-1.1456451339923794"><ele>316.6</ele><time>2026-03-30T17:42:19Z</time></trkpt><trkpt lat="42.12699978805198" lon="-1.1455238834561003"><ele>316.40000000000003</ele><time>2026-03-30T17:42:20Z</time></trkpt><trkpt lat="42.126935686841676" lon="-1.1454021260660645"><ele>316.2</ele><time>2026-03-30T17:42:21Z</time></trkpt><trkpt lat="42.12687479474381" lon="-1.1452869650102373"><ele>316.0</ele><time>2026-03-30T17:42:22Z</time></trkpt><trkpt lat="42.12681723382976" lon="-1.1451705549981965"><ele>316.0</ele><time>2026-03-30T17:42:23Z</time></trkpt><trkpt lat="42.12675771499979" lon="-1.145043172617667"><ele>316.0</ele><time>2026-03-30T17:42:24Z</time></trkpt><trkpt lat="42.12669839428563" lon="-1.1449124384473772"><ele>316.0</ele><time>2026-03-30T17:42:25Z</time></trkpt><trkpt lat="42.12663280735745" lon="-1.144784956663847"><ele>316.0</ele><time>2026-03-30T17:42:26Z</time></trkpt><trkpt lat="42.126569356650705" lon="-1.1446705500928531"><ele>316.0</ele><time>2026-03-30T17:42:27Z</time></trkpt><trkpt lat="42.12651253000697" lon="-1.1445493816676418"><ele>316.0</ele><time>2026-03-30T17:42:28Z</time></trkpt><trkpt lat="42.126454718008944" lon="-1.144428269233015"><ele>316.0</ele><time>2026-03-30T17:42:29Z</time></trkpt><trkpt lat="42.12639329331333" lon="-1.1443088014857488"><ele>316.0</ele><time>2026-03-30T17:42:30Z</time></trkpt><trkpt lat="42.12633555889301" lon="-1.1441964102529187"><ele>316.0</ele><time>2026-03-30T17:42:31Z</time></trkpt><trkpt lat="42.126288021592146" lon="-1.1440936405581736"><ele>316.0</ele><time>2026-03-30T17:42:32Z</time></trkpt><trkpt lat="42.12624831278173" lon="-1.1440113129043417"><ele>316.8</ele><time>2026-03-30T17:42:33Z</time></trkpt><trkpt lat="42.12621598377539" lon="-1.1439371024973453"><ele>317.6</ele><time>2026-03-30T17:42:34Z</time></trkpt><trkpt lat="42.12613186503856" lon="-1.1438043204166315"><ele>318.4</ele><time>2026-03-30T17:42:36Z</time></trkpt><trkpt lat="42.126087430655815" lon="-1.1437133443615268"><ele>319.2</ele><time>2026-03-30T17:42:37Z</time></trkpt><trkpt lat="42.12604784417039" lon="-1.143632227530656"><ele>320.0</ele><time>2026-03-30T17:42:38Z</time></trkpt><trkpt lat="42.125999186104124" lon="-1.1434915147451485"><ele>320.0</ele><time>2026-03-30T17:42:40Z</time></trkpt><trkpt lat="42.125934923234894" lon="-1.1433591121380275"><ele>320.0</ele><time>2026-03-30T17:42:42Z</time></trkpt><trkpt lat="42.125881412394065" lon="-1.1432146276419934"><ele>320.0</ele><time>2026-03-30T17:42:44Z</time></trkpt><trkpt lat="42.125824926128786" lon="-1.1430662168290409"><ele>320.0</ele><time>2026-03-30T17:42:46Z</time></trkpt><trkpt lat="42.12577658786439" lon="-1.1429395722143392"><ele>320.2</ele><time>2026-03-30T17:42:48Z</time></trkpt><trkpt lat="42.12574726494733" lon="-1.1428459178793715"><ele>320.4</ele><time>2026-03-30T17:42:50Z</time></trkpt><trkpt lat="42.1257060354915" lon="-1.1427331121248445"><ele>320.6</ele><time>2026-03-30T17:42:53Z</time></trkpt><trkpt lat="42.125660822287344" lon="-1.1426104286127106"><ele>320.8</ele><time>2026-03-30T17:42:55.001Z</time></trkpt><trkpt lat="42.12561768870146" lon="-1.142468500581075"><ele>321.0</ele><time>2026-03-30T17:42:57Z</time></trkpt><trkpt lat="42.12560246739891" lon="-1.1423062611342132"><ele>321.3333333333333</ele><time>2026-03-30T17:42:59Z</time></trkpt><trkpt lat="42.125623992539445" lon="-1.1422145747575452"><ele>321.6666666666667</ele><time>2026-03-30T17:43:00Z</time></trkpt><trkpt lat="42.12565160111019" lon="-1.1421222891280427"><ele>322.0</ele><time>2026-03-30T17:43:01Z</time></trkpt><trkpt lat="42.12568805485213" lon="-1.1420220109278003"><ele>322.33333333333337</ele><time>2026-03-30T17:43:02Z</time></trkpt><trkpt lat="42.12575064718181" lon="-1.1418566362241573"><ele>322.6666666666667</ele><time>2026-03-30T17:43:04Z</time></trkpt><trkpt lat="42.1257751637672" lon="-1.141771825029037"><ele>323.0</ele><time>2026-03-30T17:43:05Z</time></trkpt><trkpt lat="42.125803461334186" lon="-1.1416916321043475"><ele>323.0</ele><time>2026-03-30T17:43:06Z</time></trkpt><trkpt lat="42.12583339157886" lon="-1.1416041516117876"><ele>323.0</ele><time>2026-03-30T17:43:07Z</time></trkpt><trkpt lat="42.12586517171363" lon="-1.1415181022612675"><ele>323.0</ele><time>2026-03-30T17:43:08Z</time></trkpt><trkpt lat="42.125901273691895" lon="-1.1414201991937"><ele>323.0</ele><time>2026-03-30T17:43:09Z</time></trkpt><trkpt lat="42.12593630772346" lon="-1.1413226118329851"><ele>323.0</ele><time>2026-03-30T17:43:10Z</time></trkpt><trkpt lat="42.125980051129" lon="-1.141188236732971"><ele>323.0</ele><time>2026-03-30T17:43:12Z</time></trkpt><trkpt lat="42.12601921360517" lon="-1.1410996155942672"><ele>323.1666666666667</ele><time>2026-03-30T17:43:13Z</time></trkpt><trkpt lat="42.12605584712136" lon="-1.1410179198586394"><ele>323.33333333333337</ele><time>2026-03-30T17:43:14Z</time></trkpt><trkpt lat="42.12609457799809" lon="-1.140931640738567"><ele>323.5</ele><time>2026-03-30T17:43:15Z</time></trkpt><trkpt lat="42.12612141535931" lon="-1.1408193320396653"><ele>323.6666666666667</ele><time>2026-03-30T17:43:16Z</time></trkpt><trkpt lat="42.126163652288064" lon="-1.140709011354681"><ele>323.8333333333333</ele><time>2026-03-30T17:43:17Z</time></trkpt><trkpt lat="42.12619850038744" lon="-1.1406023698704413"><ele>324.0</ele><time>2026-03-30T17:43:18Z</time></trkpt><trkpt lat="42.12622968012788" lon="-1.140510779116252"><ele>324.4</ele><time>2026-03-30T17:43:19Z</time></trkpt><trkpt lat="42.12628264456857" lon="-1.1403722043305988"><ele>324.79999999999995</ele><time>2026-03-30T17:43:21Z</time></trkpt><trkpt lat="42.12632200849574" lon="-1.140260623513671"><ele>325.20000000000005</ele><time>2026-03-30T17:43:23Z</time></trkpt><trkpt lat="42.12636084050172" lon="-1.1401514358854328"><ele>325.6</ele><time>2026-03-30T17:43:25Z</time></trkpt><trkpt lat="42.12640187512738" lon="-1.1400316521969762"><ele>326.0</ele><time>2026-03-30T17:43:27Z</time></trkpt><trkpt lat="42.12644505894769" lon="-1.1398995981744462"><ele>326.0</ele><time>2026-03-30T17:43:29Z</time></trkpt><trkpt lat="42.126481352194254" lon="-1.1397899498751882"><ele>326.0</ele><time>2026-03-30T17:43:31Z</time></trkpt><trkpt lat="42.12651143294034" lon="-1.1397066177266522"><ele>326.0</ele><time>2026-03-30T17:43:33Z</time></trkpt><trkpt lat="42.12656180841325" lon="-1.1395860390977501"><ele>326.0</ele><time>2026-03-30T17:44:20Z</time></trkpt><trkpt lat="42.12659084119353" lon="-1.1395066120909028"><ele>326.0</ele><time>2026-03-30T17:44:21Z</time></trkpt><trkpt lat="42.126622540301014" lon="-1.1394198906055257"><ele>326.0</ele><time>2026-03-30T17:44:23Z</time></trkpt><trkpt lat="42.126659976219656" lon="-1.1393174745400996"><ele>326.1666666666667</ele><time>2026-03-30T17:44:30Z</time></trkpt><trkpt lat="42.126705955929594" lon="-1.139241920754661"><ele>326.33333333333337</ele><time>2026-03-30T17:44:32Z</time></trkpt><trkpt lat="42.126747254605284" lon="-1.1391068820121444"><ele>326.5</ele><time>2026-03-30T17:44:34Z</time></trkpt><trkpt lat="42.12677640739556" lon="-1.1390163177137174"><ele>326.6666666666667</ele><time>2026-03-30T17:44:35Z</time></trkpt><trkpt lat="42.12680567607434" lon="-1.138935544047572"><ele>326.8333333333333</ele><time>2026-03-30T17:44:36Z</time></trkpt><trkpt lat="42.12683849441768" lon="-1.1388612490131766"><ele>327.0</ele><time>2026-03-30T17:44:37Z</time></trkpt><trkpt lat="42.126871021849965" lon="-1.1387207294221524"><ele>327.0</ele><time>2026-03-30T17:44:39Z</time></trkpt><trkpt lat="42.12690492645054" lon="-1.1386183547158015"><ele>327.0</ele><time>2026-03-30T17:44:41Z</time></trkpt><trkpt lat="42.12702783980215" lon="-1.1387292035042154"><ele>327.0</ele><time>2026-03-30T17:44:43Z</time></trkpt><trkpt lat="42.12712270726809" lon="-1.1387639092234079"><ele>327.0</ele><time>2026-03-30T17:44:45Z</time></trkpt><trkpt lat="42.12722434590984" lon="-1.1387961432987508"><ele>327.0</ele><time>2026-03-30T17:44:47Z</time></trkpt><trkpt lat="42.127320384857704" lon="-1.1388213627339316"><ele>328.0</ele><time>2026-03-30T17:44:49Z</time></trkpt><trkpt lat="42.127393978655924" lon="-1.138854086246502"><ele>329.0</ele><time>2026-03-30T17:44:52Z</time></trkpt><trkpt lat="42.127463500164446" lon="-1.138875370116065"><ele>330.0</ele><time>2026-03-30T17:44:56Z</time></trkpt><trkpt lat="42.12756656051761" lon="-1.138881718676744"><ele>331.0</ele><time>2026-03-30T17:44:58Z</time></trkpt><trkpt lat="42.12765993838722" lon="-1.1388225815696742"><ele>332.0</ele><time>2026-03-30T17:45:01Z</time></trkpt><trkpt lat="42.12771324817558" lon="-1.1386911140526157"><ele>332.0</ele><time>2026-03-30T17:45:02Z</time></trkpt><trkpt lat="42.12775409833477" lon="-1.138776953042278"><ele>332.0</ele><time>2026-03-30T17:45:03Z</time></trkpt><trkpt lat="42.12774713716783" lon="-1.1388811356306332"><ele>332.0</ele><time>2026-03-30T17:45:06Z</time></trkpt><trkpt lat="42.12766979342182" lon="-1.1388499995260601"><ele>332.0</ele><time>2026-03-30T17:45:08Z</time></trkpt><trkpt lat="42.1276290971225" lon="-1.1387734423504374"><ele>332.0</ele><time>2026-03-30T17:45:11Z</time></trkpt><trkpt lat="42.12765536198689" lon="-1.1386814650089994"><ele>332.0</ele><time>2026-03-30T17:45:55Z</time></trkpt><trkpt lat="42.12762304985091" lon="-1.1385931865094607"><ele>332.0</ele><time>2026-03-30T17:45:57Z</time></trkpt><trkpt lat="42.127592291299365" lon="-1.1385048805158813"><ele>332.0</ele><time>2026-03-30T17:45:58Z</time></trkpt><trkpt lat="42.12758075398818" lon="-1.138388068001197"><ele>332.0</ele><time>2026-03-30T17:45:59Z</time></trkpt><trkpt lat="42.127578130738485" lon="-1.1382893733674635"><ele>332.0</ele><time>2026-03-30T17:46:00Z</time></trkpt><trkpt lat="42.12758255642777" lon="-1.1381857672041635"><ele>332.0</ele><time>2026-03-30T17:46:01Z</time></trkpt><trkpt lat="42.12757881133592" lon="-1.138092135216707"><ele>332.0</ele><time>2026-03-30T17:46:02Z</time></trkpt><trkpt lat="42.12756859243993" lon="-1.1379086197004864"><ele>331.6666666666667</ele><time>2026-03-30T17:46:04Z</time></trkpt><trkpt lat="42.127567482795996" lon="-1.1378051103552345"><ele>331.33333333333337</ele><time>2026-03-30T17:46:05Z</time></trkpt><trkpt lat="42.12756421635674" lon="-1.1376989908460973"><ele>331.0</ele><time>2026-03-30T17:46:06Z</time></trkpt><trkpt lat="42.127565391433706" lon="-1.1375980185468315"><ele>330.6666666666667</ele><time>2026-03-30T17:46:07Z</time></trkpt><trkpt lat="42.12756561818839" lon="-1.137486552389919"><ele>330.3333333333333</ele><time>2026-03-30T17:46:08Z</time></trkpt><trkpt lat="42.12757083628099" lon="-1.137370501519753"><ele>330.0</ele><time>2026-03-30T17:46:09Z</time></trkpt><trkpt lat="42.12757004797972" lon="-1.1372548783823322"><ele>330.0</ele><time>2026-03-30T17:46:10Z</time></trkpt><trkpt lat="42.127570171418775" lon="-1.1371459752485673"><ele>330.0</ele><time>2026-03-30T17:46:11Z</time></trkpt><trkpt lat="42.12755479625802" lon="-1.1369808204084773"><ele>330.0</ele><time>2026-03-30T17:46:13Z</time></trkpt><trkpt lat="42.1275528026349" lon="-1.1368785232644356"><ele>330.0</ele><time>2026-03-30T17:46:15Z</time></trkpt><trkpt lat="42.12731688710768" lon="-1.136867508655473"><ele>329.6666666666667</ele><time>2026-03-30T17:46:20Z</time></trkpt><trkpt lat="42.127251652747205" lon="-1.1368404714352336"><ele>329.3333333333333</ele><time>2026-03-30T17:46:21Z</time></trkpt><trkpt lat="42.12717199181346" lon="-1.136853542568433"><ele>329.0</ele><time>2026-03-30T17:46:29Z</time></trkpt><trkpt lat="42.1270919125466" lon="-1.136946056425284"><ele>328.66666666666663</ele><time>2026-03-30T17:46:31Z</time></trkpt><trkpt lat="42.12713781739101" lon="-1.1370444992658206"><ele>328.3333333333333</ele><time>2026-03-30T17:46:32Z</time></trkpt><trkpt lat="42.12712985206701" lon="-1.1371497084198987"><ele>328.0</ele><time>2026-03-30T17:46:33Z</time></trkpt><trkpt lat="42.127121334937826" lon="-1.1372661931353287"><ele>328.0</ele><time>2026-03-30T17:46:34Z</time></trkpt><trkpt lat="42.127113808532926" lon="-1.1373691282277094"><ele>328.0</ele><time>2026-03-30T17:46:35Z</time></trkpt><trkpt lat="42.12710537077878" lon="-1.1374845273864347"><ele>328.0</ele><time>2026-03-30T17:46:37Z</time></trkpt><trkpt lat="42.12709792947748" lon="-1.137586298510948"><ele>328.0</ele><time>2026-03-30T17:46:39Z</time></trkpt><trkpt lat="42.12707301843489" lon="-1.1377366439154557"><ele>328.0</ele><time>2026-03-30T17:46:41Z</time></trkpt><trkpt lat="42.12706983398815" lon="-1.1378859371429881"><ele>327.8333333333333</ele><time>2026-03-30T17:46:43Z</time></trkpt><trkpt lat="42.12706806872249" lon="-1.1379981543981283"><ele>327.66666666666663</ele><time>2026-03-30T17:46:45Z</time></trkpt><trkpt lat="42.12705932571938" lon="-1.1381073111003408"><ele>327.5</ele><time>2026-03-30T17:46:47Z</time></trkpt><trkpt lat="42.127055628087845" lon="-1.1382086770860358"><ele>327.3333333333333</ele><time>2026-03-30T17:46:49Z</time></trkpt><trkpt lat="42.12703622847014" lon="-1.1383135557982373"><ele>327.1666666666667</ele><time>2026-03-30T17:46:51Z</time></trkpt><trkpt lat="42.127000916408065" lon="-1.1384502179452909"><ele>327.0</ele><time>2026-03-30T17:46:54Z</time></trkpt><trkpt lat="42.126984331961495" lon="-1.1385334265957103"><ele>327.0</ele><time>2026-03-30T17:46:56Z</time></trkpt><trkpt lat="42.126972270298275" lon="-1.1386428001167122"><ele>327.0</ele><time>2026-03-30T17:48:01Z</time></trkpt><trkpt lat="42.12692734284009" lon="-1.138728393315303"><ele>327.0</ele><time>2026-03-30T17:48:02Z</time></trkpt><trkpt lat="42.12685176412413" lon="-1.1388846242549353"><ele>327.0</ele><time>2026-03-30T17:48:04Z</time></trkpt><trkpt lat="42.12671380135772" lon="-1.138845391085546"><ele>327.0</ele><time>2026-03-30T17:48:05Z</time></trkpt><trkpt lat="42.12663796770173" lon="-1.1388217549916884"><ele>327.0</ele><time>2026-03-30T17:48:06Z</time></trkpt><trkpt lat="42.12656410585017" lon="-1.1388004663863396"><ele>327.0</ele><time>2026-03-30T17:48:07Z</time></trkpt><trkpt lat="42.1264993770959" lon="-1.1387865557324781"><ele>327.0</ele><time>2026-03-30T17:48:08Z</time></trkpt><trkpt lat="42.126409080784676" lon="-1.138775525272436"><ele>327.0</ele><time>2026-03-30T17:48:10Z</time></trkpt><trkpt lat="42.12633934829914" lon="-1.1387676804024527"><ele>327.0</ele><time>2026-03-30T17:48:14Z</time></trkpt><trkpt lat="42.12619840548315" lon="-1.1387570456704728"><ele>327.0</ele><time>2026-03-30T17:48:17Z</time></trkpt><trkpt lat="42.12610936393225" lon="-1.1387490212414362"><ele>326.8333333333333</ele><time>2026-03-30T17:48:18Z</time></trkpt><trkpt lat="42.12602172215013" lon="-1.1387421192060359"><ele>326.6666666666667</ele><time>2026-03-30T17:48:19Z</time></trkpt><trkpt lat="42.125942394333826" lon="-1.1387363313148828"><ele>326.5</ele><time>2026-03-30T17:48:20Z</time></trkpt><trkpt lat="42.12586734744552" lon="-1.13873095931872"><ele>326.33333333333337</ele><time>2026-03-30T17:48:21Z</time></trkpt><trkpt lat="42.125803212574525" lon="-1.138726763735911"><ele>326.1666666666667</ele><time>2026-03-30T17:48:22Z</time></trkpt><trkpt lat="42.125717457642736" lon="-1.138719422049847"><ele>326.0</ele><time>2026-03-30T17:48:24Z</time></trkpt><trkpt lat="42.12564895160601" lon="-1.1387325976257547"><ele>326.0</ele><time>2026-03-30T17:48:27Z</time></trkpt><trkpt lat="42.125575475120286" lon="-1.138726641459629"><ele>326.0</ele><time>2026-03-30T17:48:32Z</time></trkpt><trkpt lat="42.125636346728896" lon="-1.1387593318770628"><ele>326.0</ele><time>2026-03-30T17:50:58Z</time></trkpt><trkpt lat="42.12567284757283" lon="-1.1386737709028587"><ele>326.0</ele><time>2026-03-30T17:52:08Z</time></trkpt><trkpt lat="42.125784334874965" lon="-1.1386606137019089"><ele>326.0</ele><time>2026-03-30T17:52:10Z</time></trkpt><trkpt lat="42.12586308541472" lon="-1.1386767960278297"><ele>326.0</ele><time>2026-03-30T17:52:11Z</time></trkpt><trkpt lat="42.12594750102601" lon="-1.1386952883140984"><ele>326.0</ele><time>2026-03-30T17:52:12Z</time></trkpt><trkpt lat="42.1260269976801" lon="-1.138680270311021"><ele>326.0</ele><time>2026-03-30T17:52:13Z</time></trkpt><trkpt lat="42.1260957315108" lon="-1.1387061763789073"><ele>326.0</ele><time>2026-03-30T17:52:14Z</time></trkpt><trkpt lat="42.126212611315864" lon="-1.1386998247604199"><ele>326.0</ele><time>2026-03-30T17:52:16Z</time></trkpt><trkpt lat="42.12628296531683" lon="-1.138702319973758"><ele>326.0</ele><time>2026-03-30T17:52:18Z</time></trkpt><trkpt lat="42.12635309037732" lon="-1.1386845299453139"><ele>326.0</ele><time>2026-03-30T17:52:21Z</time></trkpt><trkpt lat="42.12633269805904" lon="-1.1384695974236145"><ele>326.0</ele><time>2026-03-30T17:52:34Z</time></trkpt><trkpt lat="42.12638338554112" lon="-1.13854607328738"><ele>326.0</ele><time>2026-03-30T17:53:06Z</time></trkpt><trkpt lat="42.12639671278274" lon="-1.1384528632093094"><ele>326.0</ele><time>2026-03-30T17:53:18Z</time></trkpt><trkpt lat="42.12637783530619" lon="-1.1383717753629237"><ele>326.0</ele><time>2026-03-30T17:53:28Z</time></trkpt><trkpt lat="42.12636017134792" lon="-1.1382804738267756"><ele>326.0</ele><time>2026-03-30T17:53:39Z</time></trkpt><trkpt lat="42.126353234884846" lon="-1.1381870862611925"><ele>326.0</ele><time>2026-03-30T17:53:46Z</time></trkpt><trkpt lat="42.12636966070533" lon="-1.1380966708153297"><ele>326.0</ele><time>2026-03-30T17:53:53Z</time></trkpt><trkpt lat="42.126346871613165" lon="-1.1381970241771544"><ele>326.0</ele><time>2026-03-30T17:54:46Z</time></trkpt><trkpt lat="42.12634757029573" lon="-1.1382906388156984"><ele>326.0</ele><time>2026-03-30T17:54:52Z</time></trkpt><trkpt lat="42.12635685353588" lon="-1.1383784615885857"><ele>326.0</ele><time>2026-03-30T17:54:57Z</time></trkpt><trkpt lat="42.126376231363544" lon="-1.1384771738136896"><ele>326.0</ele><time>2026-03-30T17:55:02Z</time></trkpt><trkpt lat="42.1264278862292" lon="-1.1384215391870947"><ele>326.0</ele><time>2026-03-30T17:55:50Z</time></trkpt><trkpt lat="42.126390362614224" lon="-1.1383427130206254"><ele>326.0</ele><time>2026-03-30T17:55:56Z</time></trkpt><trkpt lat="42.12636690354445" lon="-1.1382579297866335"><ele>326.0</ele><time>2026-03-30T17:56:00Z</time></trkpt><trkpt lat="42.12634902781087" lon="-1.1381648101549715"><ele>326.0</ele><time>2026-03-30T17:56:05Z</time></trkpt><trkpt lat="42.12634041501829" lon="-1.1380738946498326"><ele>326.0</ele><time>2026-03-30T17:56:10Z</time></trkpt><trkpt lat="42.12651814502031" lon="-1.13820543631736"><ele>326.0</ele><time>2026-03-30T17:56:35.717Z</time></trkpt><trkpt lat="42.12638774287663" lon="-1.138110221146396"><ele>326.0</ele><time>2026-03-30T17:57:36.986Z</time></trkpt><trkpt lat="42.126261626209065" lon="-1.1381560007711249"><ele>326.0</ele><time>2026-03-30T17:57:38.5Z</time></trkpt><trkpt lat="42.12626346333524" lon="-1.1380589871576776"><ele>326.0</ele><time>2026-03-30T17:57:42.3Z</time></trkpt><trkpt lat="42.126276312836836" lon="-1.137951138580712"><ele>326.0</ele><time>2026-03-30T17:57:48Z</time></trkpt><trkpt lat="42.126273714157065" lon="-1.1378440187064598"><ele>326.0</ele><time>2026-03-30T17:57:52Z</time></trkpt><trkpt lat="42.12625536488315" lon="-1.13775647286787"><ele>326.0</ele><time>2026-03-30T17:57:56.025Z</time></trkpt><trkpt lat="42.126247952625775" lon="-1.137888286370239"><ele>326.0</ele><time>2026-03-30T17:57:57.85Z</time></trkpt><trkpt lat="42.1263433208029" lon="-1.1380369345344399"><ele>326.0</ele><time>2026-03-30T17:58:00.55Z</time></trkpt><trkpt lat="42.12651350166521" lon="-1.1382020796580838"><ele>326.0</ele><time>2026-03-30T17:58:17.932Z</time></trkpt><trkpt lat="42.126501003731036" lon="-1.1379346228680136"><ele>326.0</ele><time>2026-03-30T17:58:24.234Z</time></trkpt><trkpt lat="42.12624399472412" lon="-1.138064037263195"><ele>326.0</ele><time>2026-03-30T17:58:40.01Z</time></trkpt><trkpt lat="42.126517081451176" lon="-1.1382042563504224"><ele>326.0</ele><time>2026-03-30T17:58:53.981Z</time></trkpt><trkpt lat="42.126434202636815" lon="-1.1379903105317106"><ele>326.0</ele><time>2026-03-30T17:58:56.425Z</time></trkpt><trkpt lat="42.126518095609214" lon="-1.1382052768241127"><ele>326.0</ele><time>2026-03-30T17:59:15.99Z</time></trkpt><trkpt lat="42.12633158877142" lon="-1.13824564399994"><ele>326.0</ele><time>2026-03-30T18:00:11.45Z</time></trkpt><trkpt lat="42.12625398973676" lon="-1.1382783500314835"><ele>326.0</ele><time>2026-03-30T18:00:12.4Z</time></trkpt><trkpt lat="42.12625569692671" lon="-1.1381825633183156"><ele>326.0</ele><time>2026-03-30T18:00:20Z</time></trkpt><trkpt lat="42.12632118858799" lon="-1.1381496758154714"><ele>326.0</ele><time>2026-03-30T18:00:23Z</time></trkpt><trkpt lat="42.1263957631753" lon="-1.1381841005886473"><ele>326.0</ele><time>2026-03-30T18:00:40.026Z</time></trkpt><trkpt lat="42.12640476642061" lon="-1.138088424733207"><ele>326.0</ele><time>2026-03-30T18:00:45.026Z</time></trkpt><trkpt lat="42.12645032334286" lon="-1.13799082850166"><ele>326.0</ele><time>2026-03-30T18:00:48.098Z</time></trkpt><trkpt lat="42.126393080532814" lon="-1.138046529346201"><ele>326.0</ele><time>2026-03-30T18:00:55Z</time></trkpt><trkpt lat="42.12644436994997" lon="-1.138209432087778"><ele>326.0</ele><time>2026-03-30T18:02:00Z</time></trkpt><trkpt lat="42.12646579946823" lon="-1.1380852350267179"><ele>326.0</ele><time>2026-03-30T18:02:10.025Z</time></trkpt><trkpt lat="42.12642959367365" lon="-1.1380128849007372"><ele>326.0</ele><time>2026-03-30T18:02:38Z</time></trkpt><trkpt lat="42.12635335200525" lon="-1.1380059382362555"><ele>326.0</ele><time>2026-03-30T18:02:44Z</time></trkpt><trkpt lat="42.1264184330035" lon="-1.1379981731545927"><ele>326.0</ele><time>2026-03-30T18:03:02Z</time></trkpt><trkpt lat="42.12639247142951" lon="-1.1381085545221559"><ele>326.0</ele><time>2026-03-30T18:04:24.525Z</time></trkpt><trkpt lat="42.12641611381921" lon="-1.138029667106992"><ele>326.0</ele><time>2026-03-30T18:04:32.1Z</time></trkpt><trkpt lat="42.126460946947425" lon="-1.1379626477162348"><ele>326.0</ele><time>2026-03-30T18:04:47.025Z</time></trkpt><trkpt lat="42.12648302367095" lon="-1.1380700189063784"><ele>326.0</ele><time>2026-03-30T18:05:20Z</time></trkpt><trkpt lat="42.12640727973888" lon="-1.1380947469492961"><ele>326.0</ele><time>2026-03-30T18:05:23Z</time></trkpt><trkpt lat="42.12636500514295" lon="-1.1381663482316748"><ele>326.0</ele><time>2026-03-30T18:05:29.025Z</time></trkpt><trkpt lat="42.12642394602917" lon="-1.1382501250935848"><ele>326.0</ele><time>2026-03-30T18:05:32.026Z</time></trkpt><trkpt lat="42.12631455142416" lon="-1.1383147327307273"><ele>326.0</ele><time>2026-03-30T18:05:38.025Z</time></trkpt><trkpt lat="42.12629009793295" lon="-1.1382358459311361"><ele>326.0</ele><time>2026-03-30T18:05:43.025Z</time></trkpt><trkpt lat="42.12628967617497" lon="-1.1381384509029957"><ele>326.0</ele><time>2026-03-30T18:05:47.025Z</time></trkpt><trkpt lat="42.12635716550961" lon="-1.1381150010136443"><ele>326.0</ele><time>2026-03-30T18:05:55.025Z</time></trkpt><trkpt lat="42.12643517730815" lon="-1.1380758720021553"><ele>326.0</ele><time>2026-03-30T18:06:12Z</time></trkpt><trkpt lat="42.126515686996584" lon="-1.138089235337994"><ele>326.0</ele><time>2026-03-30T18:06:25Z</time></trkpt><trkpt lat="42.1264708300684" lon="-1.1381683982054087"><ele>326.0</ele><time>2026-03-30T18:06:36Z</time></trkpt><trkpt lat="42.12639990976548" lon="-1.1381456247704638"><ele>326.0</ele><time>2026-03-30T18:06:51Z</time></trkpt><trkpt lat="42.12635031957951" lon="-1.138063938837695"><ele>326.0</ele><time>2026-03-30T18:06:59.025Z</time></trkpt><trkpt lat="42.12643501122848" lon="-1.1380599145323698"><ele>326.0</ele><time>2026-03-30T18:07:06Z</time></trkpt><trkpt lat="42.12637543650374" lon="-1.1381236822766958"><ele>326.0</ele><time>2026-03-30T18:07:14Z</time></trkpt><trkpt lat="42.12631492825287" lon="-1.1381502572108326"><ele>326.0</ele><time>2026-03-30T18:07:16Z</time></trkpt><trkpt lat="42.12638358089153" lon="-1.138130059608329"><ele>326.0</ele><time>2026-03-30T18:07:56Z</time></trkpt><trkpt lat="42.12640232352014" lon="-1.1380207678921797"><ele>326.0</ele><time>2026-03-30T18:08:26Z</time></trkpt><trkpt lat="42.12633792984651" lon="-1.1380500163752096"><ele>326.0</ele><time>2026-03-30T18:08:31Z</time></trkpt><trkpt lat="42.12644499764876" lon="-1.1380438043089458"><ele>326.0</ele><time>2026-03-30T18:08:55.405Z</time></trkpt><trkpt lat="42.12630213136639" lon="-1.1380103076217314"><ele>326.0</ele><time>2026-03-30T18:09:13Z</time></trkpt><trkpt lat="42.12625069064548" lon="-1.137951713599156"><ele>326.0</ele><time>2026-03-30T18:09:52.025Z</time></trkpt><trkpt lat="42.12644364160497" lon="-1.1381652514853302"><ele>326.0</ele><time>2026-03-30T18:11:17.025Z</time></trkpt><trkpt lat="42.12644638401394" lon="-1.138016090648976"><ele>326.0</ele><time>2026-03-30T18:11:38.415Z</time></trkpt><trkpt lat="42.126396083012104" lon="-1.1380729659134439"><ele>326.0</ele><time>2026-03-30T18:12:22Z</time></trkpt><trkpt lat="42.1264017841815" lon="-1.1381579907037964"><ele>326.0</ele><time>2026-03-30T18:19:15Z</time></trkpt><trkpt lat="42.126349497669025" lon="-1.1382310931861257"><ele>326.0</ele><time>2026-03-30T18:19:22Z</time></trkpt><trkpt lat="42.12632186633886" lon="-1.1383197237098561"><ele>326.0</ele><time>2026-03-30T18:19:26Z</time></trkpt><trkpt lat="42.12633793230162" lon="-1.1384139219606864"><ele>326.0</ele><time>2026-03-30T18:19:31Z</time></trkpt><trkpt lat="42.126371797833116" lon="-1.1384964288098711"><ele>326.0</ele><time>2026-03-30T18:19:34Z</time></trkpt><trkpt lat="42.12642109279684" lon="-1.1385541676701774"><ele>326.0</ele><time>2026-03-30T18:19:43Z</time></trkpt><trkpt lat="42.126427155031095" lon="-1.1384516418952242"><ele>326.0</ele><time>2026-03-30T18:19:51Z</time></trkpt><trkpt lat="42.12644637435252" lon="-1.1383558081200735"><ele>326.0</ele><time>2026-03-30T18:19:53Z</time></trkpt><trkpt lat="42.12646941060797" lon="-1.1382734258608511"><ele>326.0</ele><time>2026-03-30T18:19:59Z</time></trkpt><trkpt lat="42.12645463067168" lon="-1.1381847958547082"><ele>326.0</ele><time>2026-03-30T18:20:06Z</time></trkpt><trkpt lat="42.12644498937627" lon="-1.1380871921369065"><ele>326.0</ele><time>2026-03-30T18:20:15Z</time></trkpt><trkpt lat="42.12637839573971" lon="-1.1380626729973273"><ele>326.0</ele><time>2026-03-30T18:20:28Z</time></trkpt><trkpt lat="42.12644540513361" lon="-1.1380545830653164"><ele>326.0</ele><time>2026-03-30T18:20:53Z</time></trkpt><trkpt lat="42.126381556109386" lon="-1.1379842018840394"><ele>326.0</ele><time>2026-03-30T18:21:44.024Z</time></trkpt><trkpt lat="42.126279290472354" lon="-1.1380550594741927"><ele>326.0</ele><time>2026-03-30T18:22:04Z</time></trkpt><trkpt lat="42.126407094676686" lon="-1.138062082428214"><ele>326.0</ele><time>2026-03-30T18:22:23.402Z</time></trkpt><trkpt lat="42.126222977187375" lon="-1.138108784752015"><ele>326.0</ele><time>2026-03-30T18:22:28Z</time></trkpt><trkpt lat="42.12630383694578" lon="-1.138079372235912"><ele>326.0</ele><time>2026-03-30T18:23:15Z</time></trkpt><trkpt lat="42.12641589532206" lon="-1.1379404407501612"><ele>326.0</ele><time>2026-03-30T18:23:21.509Z</time></trkpt><trkpt lat="42.126358289260395" lon="-1.1379847349020584"><ele>326.0</ele><time>2026-03-30T18:23:31.274Z</time></trkpt><trkpt lat="42.12635267285867" lon="-1.1380955084386184"><ele>326.0</ele><time>2026-03-30T18:23:35.219Z</time></trkpt><trkpt lat="42.12629056430511" lon="-1.1380783004169506"><ele>326.0</ele><time>2026-03-30T18:24:45Z</time></trkpt><trkpt lat="42.126323806199636" lon="-1.1379975793951762"><ele>326.0</ele><time>2026-03-30T18:25:34.425Z</time></trkpt><trkpt lat="42.126230792737736" lon="-1.1379945109170921"><ele>326.0</ele><time>2026-03-30T18:26:04Z</time></trkpt><trkpt lat="42.126171655100755" lon="-1.1380342075586132"><ele>326.0</ele><time>2026-03-30T18:26:07Z</time></trkpt><trkpt lat="42.12610528789808" lon="-1.1380736501222557"><ele>326.0</ele><time>2026-03-30T18:26:09Z</time></trkpt><trkpt lat="42.126220962282304" lon="-1.1380620926040708"><ele>326.0</ele><time>2026-03-30T18:26:14Z</time></trkpt><trkpt lat="42.12629539102665" lon="-1.1380953876881732"><ele>326.0</ele><time>2026-03-30T18:26:24Z</time></trkpt><trkpt lat="42.12622166397289" lon="-1.1380275661694483"><ele>326.0</ele><time>2026-03-30T18:26:54Z</time></trkpt><trkpt lat="42.12631578739421" lon="-1.1379984043755387"><ele>326.0</ele><time>2026-03-30T18:27:06Z</time></trkpt><trkpt lat="42.126383420811976" lon="-1.137957588412425"><ele>326.0</ele><time>2026-03-30T18:27:14.75Z</time></trkpt><trkpt lat="42.1263547991886" lon="-1.1380383686275162"><ele>326.0</ele><time>2026-03-30T18:28:13Z</time></trkpt><trkpt lat="42.12633676920828" lon="-1.1381452566581975"><ele>326.0</ele><time>2026-03-30T18:28:46Z</time></trkpt><trkpt lat="42.126309146028476" lon="-1.1380607308624078"><ele>326.0</ele><time>2026-03-30T18:28:58.026Z</time></trkpt><trkpt lat="42.126229482324554" lon="-1.1380791956442395"><ele>326.0</ele><time>2026-03-30T18:29:06Z</time></trkpt><trkpt lat="42.12629160106284" lon="-1.1380458770492554"><ele>326.0</ele><time>2026-03-30T18:29:40Z</time></trkpt><trkpt lat="42.12636335369044" lon="-1.1379703583233733"><ele>326.0</ele><time>2026-03-30T18:29:56Z</time></trkpt><trkpt lat="42.12628701177734" lon="-1.1379319977323943"><ele>326.0</ele><time>2026-03-30T18:30:14.8Z</time></trkpt><trkpt lat="42.12628708177181" lon="-1.1380346193768849"><ele>326.0</ele><time>2026-03-30T18:30:37Z</time></trkpt><trkpt lat="42.126366767111996" lon="-1.1380274200924172"><ele>326.0</ele><time>2026-03-30T18:31:39Z</time></trkpt><trkpt lat="42.12628447641126" lon="-1.1379543876879594"><ele>326.0</ele><time>2026-03-30T18:32:47.025Z</time></trkpt><trkpt lat="42.12626352209264" lon="-1.1381092347645696"><ele>326.0</ele><time>2026-03-30T18:32:51.025Z</time></trkpt><trkpt lat="42.12646739253184" lon="-1.1381616694072696"><ele>326.0</ele><time>2026-03-30T18:32:59.496Z</time></trkpt><trkpt lat="42.126298749132516" lon="-1.1378026624771118"><ele>326.0</ele><time>2026-03-30T18:33:02.3Z</time></trkpt><trkpt lat="42.12623141007445" lon="-1.1378536578763858"><ele>326.0</ele><time>2026-03-30T18:33:10Z</time></trkpt><trkpt lat="42.126261380295226" lon="-1.1379436712411743"><ele>326.0</ele><time>2026-03-30T18:33:14Z</time></trkpt><trkpt lat="42.12631482502815" lon="-1.138026106823441"><ele>326.0</ele><time>2026-03-30T18:33:25Z</time></trkpt><trkpt lat="42.126316634223066" lon="-1.138111935342692"><ele>326.0</ele><time>2026-03-30T18:36:07Z</time></trkpt><trkpt lat="42.12632622281303" lon="-1.13802311984143"><ele>326.0</ele><time>2026-03-30T18:36:21Z</time></trkpt><trkpt lat="42.12640878829286" lon="-1.1379421631218352"><ele>326.0</ele><time>2026-03-30T18:36:27Z</time></trkpt><trkpt lat="42.12647257023546" lon="-1.1380066813072511"><ele>326.0</ele><time>2026-03-30T18:37:01Z</time></trkpt><trkpt lat="42.12641262953362" lon="-1.1378779883160195"><ele>326.0</ele><time>2026-03-30T18:37:09.579Z</time></trkpt><trkpt lat="42.12645929621295" lon="-1.1379872101942066"><ele>326.0</ele><time>2026-03-30T18:37:12.4Z</time></trkpt><trkpt lat="42.12652104613375" lon="-1.1379662586469652"><ele>326.0</ele><time>2026-03-30T18:37:22.4Z</time></trkpt><trkpt lat="42.12658350908908" lon="-1.1379533323360553"><ele>326.0</ele><time>2026-03-30T18:37:32.4Z</time></trkpt><trkpt lat="42.12651633418091" lon="-1.1379611330243213"><ele>326.0</ele><time>2026-03-30T18:37:38.75Z</time></trkpt><trkpt lat="42.1264540643456" lon="-1.1380283301254912"><ele>326.0</ele><time>2026-03-30T18:37:44.8Z</time></trkpt><trkpt lat="42.1263790627385" lon="-1.1380287343002744"><ele>326.0</ele><time>2026-03-30T18:38:07Z</time></trkpt><trkpt lat="42.126313018878" lon="-1.1380511096700157"><ele>326.0</ele><time>2026-03-30T18:38:12Z</time></trkpt><trkpt lat="42.12624598498918" lon="-1.1380523773329887"><ele>326.0</ele><time>2026-03-30T18:38:13Z</time></trkpt><trkpt lat="42.126168283445914" lon="-1.1380487350637085"><ele>326.0</ele><time>2026-03-30T18:38:14Z</time></trkpt><trkpt lat="42.12608444396283" lon="-1.1380448457945267"><ele>326.0</ele><time>2026-03-30T18:38:16Z</time></trkpt><trkpt lat="42.12595885447489" lon="-1.1380504574004864"><ele>326.0</ele><time>2026-03-30T18:38:18Z</time></trkpt><trkpt lat="42.12584541058846" lon="-1.1380650088404896"><ele>326.0</ele><time>2026-03-30T18:38:20Z</time></trkpt><trkpt lat="42.125786379575494" lon="-1.1380966044847485"><ele>326.0</ele><time>2026-03-30T18:38:22Z</time></trkpt><trkpt lat="42.12571693504232" lon="-1.1381127533851567"><ele>326.0</ele><time>2026-03-30T18:38:24Z</time></trkpt><trkpt lat="42.12584199834915" lon="-1.1380857226176984"><ele>326.0</ele><time>2026-03-30T18:38:30Z</time></trkpt><trkpt lat="42.125904996651265" lon="-1.1380723861266042"><ele>326.0</ele><time>2026-03-30T18:38:32Z</time></trkpt><trkpt lat="42.126084038165885" lon="-1.1380407248955284"><ele>326.0</ele><time>2026-03-30T18:38:33.025Z</time></trkpt><trkpt lat="42.12616828255191" lon="-1.1380436677784436"><ele>326.0</ele><time>2026-03-30T18:38:38Z</time></trkpt><trkpt lat="42.12609556104477" lon="-1.1380310946942518"><ele>326.0</ele><time>2026-03-30T18:38:44Z</time></trkpt><trkpt lat="42.1261653701157" lon="-1.1379873791534372"><ele>326.0</ele><time>2026-03-30T18:38:45Z</time></trkpt><trkpt lat="42.12624226640184" lon="-1.1379857079414852"><ele>326.0</ele><time>2026-03-30T18:38:48Z</time></trkpt><trkpt lat="42.126325505625516" lon="-1.138007575988536"><ele>326.0</ele><time>2026-03-30T18:38:51Z</time></trkpt><trkpt lat="42.12643508409153" lon="-1.1380215369055673"><ele>326.0</ele><time>2026-03-30T18:39:19Z</time></trkpt><trkpt lat="42.12651257782196" lon="-1.1380568282584773"><ele>326.0</ele><time>2026-03-30T18:39:38Z</time></trkpt><trkpt lat="42.126410730063014" lon="-1.1379993202185408"><ele>326.0</ele><time>2026-03-30T18:40:09Z</time></trkpt><trkpt lat="42.126288622864" lon="-1.1380417358141932"><ele>326.0</ele><time>2026-03-30T18:40:28Z</time></trkpt><trkpt lat="42.126440183342154" lon="-1.1380445376255548"><ele>326.0</ele><time>2026-03-30T18:40:57.692Z</time></trkpt><trkpt lat="42.12638940053386" lon="-1.1379870729857875"><ele>326.0</ele><time>2026-03-30T18:41:29Z</time></trkpt><trkpt lat="42.12620572950265" lon="-1.1381146917738347"><ele>326.0</ele><time>2026-03-30T18:41:37.9Z</time></trkpt><trkpt lat="42.126241334951835" lon="-1.1381947481031545"><ele>326.0</ele><time>2026-03-30T18:41:45.525Z</time></trkpt><trkpt lat="42.126448265214144" lon="-1.1380595140952832"><ele>326.0</ele><time>2026-03-30T18:42:02.26Z</time></trkpt><trkpt lat="42.12638684397312" lon="-1.1380320852295707"><ele>326.0</ele><time>2026-03-30T18:42:58Z</time></trkpt><trkpt lat="42.12631547803941" lon="-1.1380337388507051"><ele>326.0</ele><time>2026-03-30T18:43:02Z</time></trkpt><trkpt lat="42.12643031257651" lon="-1.1381300215625474"><ele>326.0</ele><time>2026-03-30T18:43:12.407Z</time></trkpt><trkpt lat="42.12636730372746" lon="-1.1381200560511777"><ele>326.0</ele><time>2026-03-30T18:44:16.024Z</time></trkpt><trkpt lat="42.12642531213485" lon="-1.1380205265880783"><ele>326.0</ele><time>2026-03-30T18:44:24.947Z</time></trkpt><trkpt lat="42.126257168664914" lon="-1.1380737048795155"><ele>326.0</ele><time>2026-03-30T18:44:33Z</time></trkpt><trkpt lat="42.126168160450014" lon="-1.1380734135324908"><ele>326.0</ele><time>2026-03-30T18:45:02Z</time></trkpt><trkpt lat="42.126106578141474" lon="-1.1380548573533884"><ele>326.0</ele><time>2026-03-30T18:45:05Z</time></trkpt><trkpt lat="42.12621211177281" lon="-1.1380273862368548"><ele>326.0</ele><time>2026-03-30T18:45:09Z</time></trkpt><trkpt lat="42.12638648774037" lon="-1.13799397429969"><ele>326.0</ele><time>2026-03-30T18:45:47Z</time></trkpt><trkpt lat="42.12629783695675" lon="-1.1380581921517372"><ele>326.0</ele><time>2026-03-30T18:46:49Z</time></trkpt><trkpt lat="42.126208272339056" lon="-1.1380838906140105"><ele>326.0</ele><time>2026-03-30T18:47:02Z</time></trkpt><trkpt lat="42.126179496633114" lon="-1.1381696670275057"><ele>326.0</ele><time>2026-03-30T18:47:05Z</time></trkpt><trkpt lat="42.126203322930714" lon="-1.1380686065087129"><ele>326.0</ele><time>2026-03-30T18:47:15Z</time></trkpt><trkpt lat="42.12627425245518" lon="-1.1380649516669246"><ele>326.0</ele><time>2026-03-30T18:50:04Z</time></trkpt><trkpt lat="42.126271302807474" lon="-1.1381642983392692"><ele>326.0</ele><time>2026-03-30T18:50:36Z</time></trkpt><trkpt lat="42.126318360408824" lon="-1.1380638659221218"><ele>326.0</ele><time>2026-03-30T18:54:41Z</time></trkpt><trkpt lat="42.126383652372795" lon="-1.1380353659973388"><ele>326.0</ele><time>2026-03-30T18:58:40.574Z</time></trkpt><trkpt lat="42.126320455166116" lon="-1.1380329661161976"><ele>326.0</ele><time>2026-03-30T19:02:04Z</time></trkpt><trkpt lat="42.126167381276815" lon="-1.138054955235988"><ele>326.0</ele><time>2026-03-30T19:02:08Z</time></trkpt><trkpt lat="42.12606156901197" lon="-1.1380780285557868"><ele>326.0</ele><time>2026-03-30T19:02:09Z</time></trkpt><trkpt lat="42.126201108585946" lon="-1.1380396019382626"><ele>326.0</ele><time>2026-03-30T19:02:19Z</time></trkpt><trkpt lat="42.12626824737099" lon="-1.1380143394419993"><ele>326.0</ele><time>2026-03-30T19:03:45Z</time></trkpt><trkpt lat="42.12634205898832" lon="-1.1379972955436604"><ele>326.0</ele><time>2026-03-30T19:03:49Z</time></trkpt><trkpt lat="42.12641351496021" lon="-1.1379990255024286"><ele>326.0</ele><time>2026-03-30T19:04:13Z</time></trkpt><trkpt lat="42.126338963385365" lon="-1.1379604210761423"><ele>326.0</ele><time>2026-03-30T19:04:39Z</time></trkpt><trkpt lat="42.12642125065109" lon="-1.138078375434962"><ele>326.0</ele><time>2026-03-30T19:10:45.408Z</time></trkpt><trkpt lat="42.12648530557522" lon="-1.138175476786861"><ele>326.0</ele><time>2026-03-30T19:10:50.902Z</time></trkpt><trkpt lat="42.126342460397694" lon="-1.138086868631086"><ele>326.0</ele><time>2026-03-30T19:11:07.261Z</time></trkpt><trkpt lat="42.126391069042" lon="-1.1378430740645913"><ele>326.0</ele><time>2026-03-30T19:11:12.704Z</time></trkpt><trkpt lat="42.126490083814076" lon="-1.1381851265901854"><ele>326.0</ele><time>2026-03-30T19:11:29.055Z</time></trkpt><trkpt lat="42.126446496094495" lon="-1.138011250715045"><ele>326.0</ele><time>2026-03-30T19:13:07.999Z</time></trkpt><trkpt lat="42.12636642582105" lon="-1.1380428528023416"><ele>326.0</ele><time>2026-03-30T19:13:33Z</time></trkpt><trkpt lat="42.12630359206114" lon="-1.138075265328447"><ele>326.0</ele><time>2026-03-30T19:13:38Z</time></trkpt><trkpt lat="42.12625525398407" lon="-1.1381477544583407"><ele>326.0</ele><time>2026-03-30T19:13:42Z</time></trkpt><trkpt lat="42.126310653508945" lon="-1.1380794402119396"><ele>326.0</ele><time>2026-03-30T19:14:07.025Z</time></trkpt><trkpt lat="42.12636140906522" lon="-1.138023851887668"><ele>326.0</ele><time>2026-03-30T19:14:34Z</time></trkpt><trkpt lat="42.126290594402434" lon="-1.1380013339173036"><ele>326.0</ele><time>2026-03-30T19:19:43Z</time></trkpt><trkpt lat="42.12644419662499" lon="-1.1379857153284505"><ele>326.0</ele><time>2026-03-30T19:21:40.674Z</time></trkpt><trkpt lat="42.126386847056736" lon="-1.1380654840863829"><ele>326.0</ele><time>2026-03-30T19:21:45.426Z</time></trkpt><trkpt lat="42.12631305175664" lon="-1.1380210045456425"><ele>326.0</ele><time>2026-03-30T19:22:05.025Z</time></trkpt><trkpt lat="42.12644718709081" lon="-1.137984668557618"><ele>326.0</ele><time>2026-03-30T19:22:28.572Z</time></trkpt><trkpt lat="42.126410975140416" lon="-1.1380606964293278"><ele>326.0</ele><time>2026-03-30T19:28:43Z</time></trkpt><trkpt lat="42.12619596297985" lon="-1.1380817083607089"><ele>326.0</ele><time>2026-03-30T19:33:50.025Z</time></trkpt><trkpt lat="42.12645504098266" lon="-1.1380229650373344"><ele>326.0</ele><time>2026-03-30T19:34:08.827Z</time></trkpt><trkpt lat="42.12636757841569" lon="-1.138038762961134"><ele>326.0</ele><time>2026-03-30T19:34:40.564Z</time></trkpt><trkpt lat="42.12675768183066" lon="-1.138083362439396"><ele>326.0</ele><time>2026-03-30T19:36:58Z</time></trkpt><trkpt lat="42.126435741057485" lon="-1.138010565725877"><ele>326.0</ele><time>2026-03-30T19:37:04Z</time></trkpt><trkpt lat="42.12675768183066" lon="-1.138083362439396"><ele>326.0</ele><time>2026-03-30T19:37:07Z</time></trkpt><trkpt lat="42.12641381008688" lon="-1.1380449018764962"><ele>326.0</ele><time>2026-03-30T19:39:00Z</time></trkpt><trkpt lat="42.126273895897405" lon="-1.1379587879913033"><ele>326.0</ele><time>2026-03-30T19:41:13Z</time></trkpt><trkpt lat="42.12639943837636" lon="-1.1379835370023006"><ele>326.0</ele><time>2026-03-30T19:41:34.531Z</time></trkpt><trkpt lat="42.12625566986761" lon="-1.1379345737457405"><ele>326.0</ele><time>2026-03-30T19:41:36Z</time></trkpt><trkpt lat="42.12627040389313" lon="-1.137830132016188"><ele>326.0</ele><time>2026-03-30T19:41:39Z</time></trkpt><trkpt lat="42.12631562595601" lon="-1.1378951096599155"><ele>326.0</ele><time>2026-03-30T19:41:51Z</time></trkpt><trkpt lat="42.126323397957854" lon="-1.1379814750353727"><ele>326.0</ele><time>2026-03-30T19:41:56Z</time></trkpt><trkpt lat="42.126344071511035" lon="-1.1380688006568416"><ele>326.0</ele><time>2026-03-30T19:42:02.025Z</time></trkpt><trkpt lat="42.12627961612862" lon="-1.1380810413749425"><ele>326.0</ele><time>2026-03-30T19:42:08.999Z</time></trkpt><trkpt lat="42.126389311666564" lon="-1.1380240300736653"><ele>326.0</ele><time>2026-03-30T19:43:13Z</time></trkpt><trkpt lat="42.12643939643009" lon="-1.1380775635479268"><ele>326.0</ele><time>2026-03-30T19:48:26.024Z</time></trkpt><trkpt lat="42.12636036630866" lon="-1.1380811141089207"><ele>326.0</ele><time>2026-03-30T19:49:03Z</time></trkpt><trkpt lat="42.12629529308084" lon="-1.138124493967743"><ele>326.0</ele><time>2026-03-30T19:49:09Z</time></trkpt><trkpt lat="42.12622605680172" lon="-1.1381159989346916"><ele>326.0</ele><time>2026-03-30T19:49:12Z</time></trkpt><trkpt lat="42.12614389643676" lon="-1.1381207384568512"><ele>326.0</ele><time>2026-03-30T19:49:15Z</time></trkpt><trkpt lat="42.126101289319884" lon="-1.138055958897002"><ele>326.0</ele><time>2026-03-30T19:49:22Z</time></trkpt><trkpt lat="42.12645082775541" lon="-1.1379664918282588"><ele>326.0</ele><time>2026-03-30T19:51:31Z</time></trkpt><trkpt lat="42.12625449287795" lon="-1.1380143065474886"><ele>326.0</ele><time>2026-03-30T19:53:39Z</time></trkpt><trkpt lat="42.126364713558914" lon="-1.1380136829094551"><ele>326.0</ele><time>2026-03-30T19:53:48Z</time></trkpt><trkpt lat="42.12643323108726" lon="-1.137985713816987"><ele>326.0</ele><time>2026-03-30T19:53:52Z</time></trkpt><trkpt lat="42.12647707221116" lon="-1.1381417193014598"><ele>326.0</ele><time>2026-03-30T19:54:03Z</time></trkpt><trkpt lat="42.12641895229759" lon="-1.138106809165339"><ele>326.0</ele><time>2026-03-30T19:54:26Z</time></trkpt><trkpt lat="42.12646039547148" lon="-1.138026303686126"><ele>326.0</ele><time>2026-03-30T19:55:42.025Z</time></trkpt><trkpt lat="42.12678317505612" lon="-1.1379789490414713"><ele>326.0</ele><time>2026-03-30T19:56:32.75Z</time></trkpt><trkpt lat="42.12665918828496" lon="-1.1379889997491726"><ele>326.0</ele><time>2026-03-30T19:56:40.35Z</time></trkpt><trkpt lat="42.12653669725888" lon="-1.1380045586946832"><ele>326.0</ele><time>2026-03-30T19:56:42.25Z</time></trkpt><trkpt lat="42.12646992313051" lon="-1.1380085031694203"><ele>326.0</ele><time>2026-03-30T19:56:44.15Z</time></trkpt><trkpt lat="42.12641042477096" lon="-1.1379767097141809"><ele>326.0</ele><time>2026-03-30T19:56:51Z</time></trkpt><trkpt lat="42.126417615320804" lon="-1.1380660561835252"><ele>326.0</ele><time>2026-03-30T19:58:33Z</time></trkpt><trkpt lat="42.12641205973254" lon="-1.1381944386600358"><ele>326.0</ele><time>2026-03-30T19:58:49Z</time></trkpt><trkpt lat="42.1264196985869" lon="-1.1383220900002191"><ele>326.0</ele><time>2026-03-30T19:58:51Z</time></trkpt><trkpt lat="42.12639926333187" lon="-1.138420698546997"><ele>326.0</ele><time>2026-03-30T19:58:53Z</time></trkpt><trkpt lat="42.126359108670385" lon="-1.1385238183733297"><ele>326.0</ele><time>2026-03-30T19:58:55Z</time></trkpt><trkpt lat="42.126366730989126" lon="-1.138612165974085"><ele>326.0</ele><time>2026-03-30T19:59:00Z</time></trkpt><trkpt lat="42.12634906739902" lon="-1.1386993145312163"><ele>326.0</ele><time>2026-03-30T19:59:05Z</time></trkpt><trkpt lat="42.12626909702329" lon="-1.138762782624096"><ele>326.0</ele><time>2026-03-30T19:59:08Z</time></trkpt><trkpt lat="42.12617654785612" lon="-1.1387849409316675"><ele>326.0</ele><time>2026-03-30T19:59:10Z</time></trkpt><trkpt lat="42.12607608635751" lon="-1.138766609565408"><ele>326.0</ele><time>2026-03-30T19:59:12Z</time></trkpt><trkpt lat="42.12598621548503" lon="-1.1387603260960837"><ele>326.0</ele><time>2026-03-30T19:59:13Z</time></trkpt><trkpt lat="42.1259046583422" lon="-1.1387553367145236"><ele>326.0</ele><time>2026-03-30T19:59:14Z</time></trkpt><trkpt lat="42.12584140443533" lon="-1.1387517096298079"><ele>326.0</ele><time>2026-03-30T19:59:15Z</time></trkpt><trkpt lat="42.12575801555385" lon="-1.1387519889434152"><ele>326.0</ele><time>2026-03-30T19:59:17Z</time></trkpt><trkpt lat="42.125684527867044" lon="-1.138736029166457"><ele>326.0</ele><time>2026-03-30T19:59:19Z</time></trkpt><trkpt lat="42.12560397262411" lon="-1.1387291387530185"><ele>326.0</ele><time>2026-03-30T19:59:22Z</time></trkpt><trkpt lat="42.12569073707893" lon="-1.1387807998783153"><ele>326.0</ele><time>2026-03-30T20:00:02Z</time></trkpt><trkpt lat="42.1258130613231" lon="-1.1387754797922192"><ele>326.0</ele><time>2026-03-30T20:00:12Z</time></trkpt><trkpt lat="42.12582789201347" lon="-1.1386560424899443"><ele>326.0</ele><time>2026-03-30T20:00:33Z</time></trkpt><trkpt lat="42.12591309050585" lon="-1.1385868324650403"><ele>326.0</ele><time>2026-03-30T20:00:36Z</time></trkpt><trkpt lat="42.12600372685438" lon="-1.138623474231824"><ele>326.0</ele><time>2026-03-30T20:00:38Z</time></trkpt><trkpt lat="42.126073258428974" lon="-1.1386494136998913"><ele>326.0</ele><time>2026-03-30T20:00:39Z</time></trkpt><trkpt lat="42.12613681160661" lon="-1.138662132015694"><ele>326.0</ele><time>2026-03-30T20:00:40Z</time></trkpt><trkpt lat="42.12621435953772" lon="-1.1386947940334977"><ele>326.0</ele><time>2026-03-30T20:00:42Z</time></trkpt><trkpt lat="42.126383037785494" lon="-1.138706480614123"><ele>326.0</ele><time>2026-03-30T20:00:48Z</time></trkpt><trkpt lat="42.12646104991515" lon="-1.1387266582412274"><ele>326.0</ele><time>2026-03-30T20:00:50Z</time></trkpt><trkpt lat="42.12653501828657" lon="-1.1387347122999454"><ele>326.0</ele><time>2026-03-30T20:00:52Z</time></trkpt><trkpt lat="42.12660467493101" lon="-1.1387318218195914"><ele>326.0</ele><time>2026-03-30T20:00:59Z</time></trkpt><trkpt lat="42.12668763542982" lon="-1.1387235959179278"><ele>326.0</ele><time>2026-03-30T20:01:02Z</time></trkpt><trkpt lat="42.12676127893086" lon="-1.1387063676989704"><ele>326.0</ele><time>2026-03-30T20:01:05Z</time></trkpt><trkpt lat="42.126819570625536" lon="-1.1387584460313822"><ele>326.14285714285717</ele><time>2026-03-30T20:01:08Z</time></trkpt><trkpt lat="42.126794234695986" lon="-1.1388561081864257"><ele>326.2857142857143</ele><time>2026-03-30T20:01:10Z</time></trkpt><trkpt lat="42.12675407552765" lon="-1.1389408919976336"><ele>326.42857142857144</ele><time>2026-03-30T20:01:12Z</time></trkpt><trkpt lat="42.126730283324974" lon="-1.139031207975805"><ele>326.57142857142856</ele><time>2026-03-30T20:01:15Z</time></trkpt><trkpt lat="42.12676313313965" lon="-1.1389497482501827"><ele>326.7142857142857</ele><time>2026-03-30T20:02:59Z</time></trkpt><trkpt lat="42.12673564441448" lon="-1.1388484136009451"><ele>326.85714285714283</ele><time>2026-03-30T20:03:02Z</time></trkpt><trkpt lat="42.12666542627148" lon="-1.1388359966906816"><ele>327.0</ele><time>2026-03-30T20:03:04Z</time></trkpt><trkpt lat="42.126597018445445" lon="-1.1388389627670392"><ele>326.85714285714283</ele><time>2026-03-30T20:03:06Z</time></trkpt><trkpt lat="42.12652593721376" lon="-1.1388248265897984"><ele>326.7142857142857</ele><time>2026-03-30T20:03:09Z</time></trkpt><trkpt lat="42.126459453287445" lon="-1.1388230689269128"><ele>326.57142857142856</ele><time>2026-03-30T20:03:13Z</time></trkpt><trkpt lat="42.12639463385943" lon="-1.1388217688824251"><ele>326.42857142857144</ele><time>2026-03-30T20:03:17Z</time></trkpt><trkpt lat="42.12632318644644" lon="-1.1388143684095147"><ele>326.2857142857143</ele><time>2026-03-30T20:03:22Z</time></trkpt><trkpt lat="42.12625034120364" lon="-1.1388123343597092"><ele>326.14285714285717</ele><time>2026-03-30T20:03:26Z</time></trkpt><trkpt lat="42.12617009346926" lon="-1.1388011038278072"><ele>326.0</ele><time>2026-03-30T20:03:30Z</time></trkpt><trkpt lat="42.12610117984325" lon="-1.1387960342836279"><ele>326.0</ele><time>2026-03-30T20:03:33Z</time></trkpt><trkpt lat="42.126038007175666" lon="-1.1388043536690715"><ele>326.0</ele><time>2026-03-30T20:03:51Z</time></trkpt><trkpt lat="42.12596358786415" lon="-1.1387857538416006"><ele>326.0</ele><time>2026-03-30T20:03:55Z</time></trkpt><trkpt lat="42.12587212937035" lon="-1.1387811039873932"><ele>326.0</ele><time>2026-03-30T20:03:58Z</time></trkpt><trkpt lat="42.12579886363027" lon="-1.1387789274076245"><ele>326.0</ele><time>2026-03-30T20:04:00Z</time></trkpt><trkpt lat="42.12572366890781" lon="-1.1387780852585934"><ele>326.0</ele><time>2026-03-30T20:04:02Z</time></trkpt><trkpt lat="42.12563978194067" lon="-1.1387645493983138"><ele>325.83333333333337</ele><time>2026-03-30T20:04:05Z</time></trkpt><trkpt lat="42.125552716370336" lon="-1.1387527710616705"><ele>325.6666666666667</ele><time>2026-03-30T20:04:07Z</time></trkpt><trkpt lat="42.125481566449515" lon="-1.1387431061782631"><ele>325.5</ele><time>2026-03-30T20:04:08Z</time></trkpt><trkpt lat="42.125389342402556" lon="-1.1387304466280708"><ele>325.3333333333333</ele><time>2026-03-30T20:04:09Z</time></trkpt><trkpt lat="42.125304997607834" lon="-1.1387206431032904"><ele>325.16666666666663</ele><time>2026-03-30T20:04:10Z</time></trkpt><trkpt lat="42.125240542559105" lon="-1.138697496465132"><ele>325.0</ele><time>2026-03-30T20:04:11Z</time></trkpt><trkpt lat="42.125135125601595" lon="-1.138688323335701"><ele>325.0</ele><time>2026-03-30T20:04:13Z</time></trkpt><trkpt lat="42.12504903675335" lon="-1.1386808320971973"><ele>325.0</ele><time>2026-03-30T20:04:16Z</time></trkpt><trkpt lat="42.12494520089475" lon="-1.1386717966919768"><ele>325.0</ele><time>2026-03-30T20:04:18Z</time></trkpt><trkpt lat="42.12486838126215" lon="-1.1386662358541388"><ele>325.0</ele><time>2026-03-30T20:04:20Z</time></trkpt><trkpt lat="42.12479588781981" lon="-1.1386604602662425"><ele>325.0</ele><time>2026-03-30T20:04:24Z</time></trkpt><trkpt lat="42.12474022899064" lon="-1.1387164676449737"><ele>325.0</ele><time>2026-03-30T20:06:05Z</time></trkpt><trkpt lat="42.124674466143" lon="-1.1387414948406689"><ele>324.8</ele><time>2026-03-30T20:06:14Z</time></trkpt><trkpt lat="42.12454427041054" lon="-1.1387150737104499"><ele>324.6</ele><time>2026-03-30T20:06:28.025Z</time></trkpt><trkpt lat="42.12444752452457" lon="-1.1386762735257714"><ele>324.4</ele><time>2026-03-30T20:06:30.025Z</time></trkpt><trkpt lat="42.12435910679002" lon="-1.1386456233199065"><ele>324.2</ele><time>2026-03-30T20:06:31.425Z</time></trkpt><trkpt lat="42.12444107916053" lon="-1.1387124248974838"><ele>324.0</ele><time>2026-03-30T20:06:39.575Z</time></trkpt><trkpt lat="42.12452054051873" lon="-1.1387470022301156"><ele>324.0</ele><time>2026-03-30T20:06:41.425Z</time></trkpt><trkpt lat="42.124610405054305" lon="-1.1387319892856658"><ele>324.0</ele><time>2026-03-30T20:06:50.525Z</time></trkpt><trkpt lat="42.12470075965759" lon="-1.1388135742066336"><ele>324.0</ele><time>2026-03-30T20:06:59.625Z</time></trkpt><trkpt lat="42.12475570491438" lon="-1.1386177742848596"><ele>324.0</ele><time>2026-03-30T20:07:22.358Z</time></trkpt><trkpt lat="42.1249725056203" lon="-1.1387124174598662"><ele>324.0</ele><time>2026-03-30T20:08:56.236Z</time></trkpt><trkpt lat="42.12478227517561" lon="-1.1386222926174994"><ele>324.0</ele><time>2026-03-30T20:09:08.704Z</time></trkpt><trkpt lat="42.124696202345255" lon="-1.1386122768145805"><ele>324.0</ele><time>2026-03-30T20:12:49.999Z</time></trkpt><trkpt lat="42.12461880089805" lon="-1.1386426220694401"><ele>324.0</ele><time>2026-03-30T20:13:01Z</time></trkpt><trkpt lat="42.12456232441165" lon="-1.1385801324434004"><ele>324.0</ele><time>2026-03-30T20:13:05Z</time></trkpt><trkpt lat="42.12461795715774" lon="-1.1385401313345005"><ele>324.0</ele><time>2026-03-30T20:13:11.026Z</time></trkpt><trkpt lat="42.12471480869104" lon="-1.1385598952669926"><ele>324.0</ele><time>2026-03-30T20:13:15.025Z</time></trkpt><trkpt lat="42.12486553806701" lon="-1.138550496046505"><ele>324.0</ele><time>2026-03-30T20:13:44.025Z</time></trkpt><trkpt lat="42.12492015718782" lon="-1.1385072017931852"><ele>324.0</ele><time>2026-03-30T20:13:46.025Z</time></trkpt><trkpt lat="42.12474699551885" lon="-1.1386213030561707"><ele>324.0</ele><time>2026-03-30T20:14:04.407Z</time></trkpt><trkpt lat="42.12476896320243" lon="-1.1385322084342597"><ele>324.0</ele><time>2026-03-30T20:15:29Z</time></trkpt><trkpt lat="42.124716351215724" lon="-1.1386090330686667"><ele>324.0</ele><time>2026-03-30T20:16:21Z</time></trkpt><trkpt lat="42.12477943337904" lon="-1.1385791139904147"><ele>324.0</ele><time>2026-03-30T20:17:02Z</time></trkpt><trkpt lat="42.124830496032416" lon="-1.1386412975843412"><ele>324.0</ele><time>2026-03-30T20:18:39.025Z</time></trkpt><trkpt lat="42.12474513767609" lon="-1.1386571598874378"><ele>324.0</ele><time>2026-03-30T20:19:55Z</time></trkpt><trkpt lat="42.12476095116493" lon="-1.138474075097215"><ele>324.0</ele><time>2026-03-30T20:20:45Z</time></trkpt><trkpt lat="42.12481105422039" lon="-1.138530311429599"><ele>324.0</ele><time>2026-03-30T20:21:20Z</time></trkpt><trkpt lat="42.12479514445214" lon="-1.138615408377458"><ele>324.0</ele><time>2026-03-30T20:21:35Z</time></trkpt><trkpt lat="42.124790087826284" lon="-1.1387101328601579"><ele>324.0</ele><time>2026-03-30T20:21:45Z</time></trkpt><trkpt lat="42.124750376633045" lon="-1.1386100037624909"><ele>324.0</ele><time>2026-03-30T20:22:08Z</time></trkpt><trkpt lat="42.1247887175159" lon="-1.1385350745126233"><ele>324.0</ele><time>2026-03-30T20:22:13Z</time></trkpt><trkpt lat="42.12467387799399" lon="-1.138604056380235"><ele>324.0</ele><time>2026-03-30T20:22:32.252Z</time></trkpt><trkpt lat="42.12471238156462" lon="-1.1387267836494266"><ele>324.0</ele><time>2026-03-30T20:23:24Z</time></trkpt><trkpt lat="42.124787963479015" lon="-1.1387124973787202"><ele>324.0</ele><time>2026-03-30T20:23:31Z</time></trkpt><trkpt lat="42.124739339316655" lon="-1.1386481228209597"><ele>324.0</ele><time>2026-03-30T20:23:37Z</time></trkpt><trkpt lat="42.12456775516205" lon="-1.1387410268128462"><ele>324.0</ele><time>2026-03-30T20:23:58.024Z</time></trkpt><trkpt lat="42.1246995530558" lon="-1.1386806599431503"><ele>324.0</ele><time>2026-03-30T20:24:11.501Z</time></trkpt><trkpt lat="42.12483359437566" lon="-1.138639561313667"><ele>324.0</ele><time>2026-03-30T20:24:52.299Z</time></trkpt><trkpt lat="42.12482360624294" lon="-1.1385448659156248"><ele>324.0</ele><time>2026-03-30T20:24:59.024Z</time></trkpt><trkpt lat="42.12471455766573" lon="-1.1386812986709587"><ele>324.0</ele><time>2026-03-30T20:25:52Z</time></trkpt><trkpt lat="42.12477842845846" lon="-1.1386869141850562"><ele>324.0</ele><time>2026-03-30T20:26:12Z</time></trkpt><trkpt lat="42.124771272877574" lon="-1.1385176799952923"><ele>324.0</ele><time>2026-03-30T20:28:21Z</time></trkpt><trkpt lat="42.124703964912335" lon="-1.1387429589298725"><ele>324.0</ele><time>2026-03-30T20:28:47Z</time></trkpt><trkpt lat="42.1246343750018" lon="-1.1384613340753644"><ele>324.0</ele><time>2026-03-30T20:29:39.025Z</time></trkpt><trkpt lat="42.12478401335855" lon="-1.1386225936455283"><ele>324.0</ele><time>2026-03-30T20:29:55.405Z</time></trkpt><trkpt lat="42.12470903527356" lon="-1.1385412733510842"><ele>324.0</ele><time>2026-03-30T20:30:08Z</time></trkpt><trkpt lat="42.124776188979354" lon="-1.1387164840457011"><ele>324.0</ele><time>2026-03-30T20:31:16Z</time></trkpt><trkpt lat="42.12482507146463" lon="-1.1388226426279966"><ele>324.0</ele><time>2026-03-30T20:31:17Z</time></trkpt><trkpt lat="42.12475315023378" lon="-1.1388171048912752"><ele>324.0</ele><time>2026-03-30T20:31:37Z</time></trkpt><trkpt lat="42.12467028657815" lon="-1.1386967429133972"><ele>324.0</ele><time>2026-03-30T20:31:41Z</time></trkpt><trkpt lat="42.12478779684558" lon="-1.1386205713621647"><ele>324.0</ele><time>2026-03-30T20:32:06.035Z</time></trkpt><trkpt lat="42.12470315758079" lon="-1.138707119400883"><ele>324.0</ele><time>2026-03-30T20:32:16Z</time></trkpt><trkpt lat="42.1246542367151" lon="-1.1387652777758208"><ele>324.0</ele><time>2026-03-30T20:32:34Z</time></trkpt><trkpt lat="42.124710632082454" lon="-1.1386936565954866"><ele>324.0</ele><time>2026-03-30T20:33:45Z</time></trkpt><trkpt lat="42.12476128266164" lon="-1.1386292832836196"><ele>324.0</ele><time>2026-03-30T20:33:53Z</time></trkpt><trkpt lat="42.12489618173585" lon="-1.1385907596094242"><ele>324.0</ele><time>2026-03-30T20:35:48.46Z</time></trkpt><trkpt lat="42.12481480577537" lon="-1.1385812485048816"><ele>324.0</ele><time>2026-03-30T20:36:07.999Z</time></trkpt><trkpt lat="42.12461922977933" lon="-1.1384822597804007"><ele>324.0</ele><time>2026-03-30T20:38:30Z</time></trkpt><trkpt lat="42.124699741301036" lon="-1.138469939871417"><ele>324.0</ele><time>2026-03-30T20:39:31Z</time></trkpt><trkpt lat="42.12473803085317" lon="-1.138398749454889"><ele>324.0</ele><time>2026-03-30T20:39:42Z</time></trkpt><trkpt lat="42.124786019474115" lon="-1.1385433496608524"><ele>324.0</ele><time>2026-03-30T20:44:09.025Z</time></trkpt><trkpt lat="42.12472568234729" lon="-1.1385985750534668"><ele>324.0</ele><time>2026-03-30T20:45:00.025Z</time></trkpt><trkpt lat="42.124682085320615" lon="-1.138511872004744"><ele>324.0</ele><time>2026-03-30T20:45:21Z</time></trkpt><trkpt lat="42.124744829464206" lon="-1.1384758449791734"><ele>324.0</ele><time>2026-03-30T20:46:02Z</time></trkpt><trkpt lat="42.12483887710937" lon="-1.1384445884680408"><ele>324.0</ele><time>2026-03-30T20:46:09Z</time></trkpt><trkpt lat="42.12496598757341" lon="-1.1384592303032852"><ele>324.0</ele><time>2026-03-30T20:46:19.475Z</time></trkpt><trkpt lat="42.12481618541466" lon="-1.1385430383914383"><ele>324.0</ele><time>2026-03-30T20:46:34Z</time></trkpt><trkpt lat="42.1247466354564" lon="-1.1385450519676832"><ele>324.0</ele><time>2026-03-30T20:46:39.025Z</time></trkpt><trkpt lat="42.12482495540211" lon="-1.1385335680353652"><ele>324.0</ele><time>2026-03-30T20:50:05.425Z</time></trkpt><trkpt lat="42.12490149819639" lon="-1.1384984759994428"><ele>324.0</ele><time>2026-03-30T20:50:08.125Z</time></trkpt><trkpt lat="42.12519211009358" lon="-1.1384953371365671"><ele>324.0</ele><time>2026-03-30T20:50:23.999Z</time></trkpt><trkpt lat="42.12499838385906" lon="-1.138443806316252"><ele>324.0</ele><time>2026-03-30T20:50:24.999Z</time></trkpt><trkpt lat="42.124915112874284" lon="-1.1384896118770083"><ele>324.0</ele><time>2026-03-30T20:50:26.999Z</time></trkpt><trkpt lat="42.12485071170822" lon="-1.13843648994163"><ele>324.0</ele><time>2026-03-30T20:50:35Z</time></trkpt><trkpt lat="42.124789720197825" lon="-1.1383965825994435"><ele>324.0</ele><time>2026-03-30T20:50:45Z</time></trkpt><trkpt lat="42.124846042160804" lon="-1.1384384972666415"><ele>324.0</ele><time>2026-03-30T20:51:01.875Z</time></trkpt><trkpt lat="42.124924025792936" lon="-1.1384367942621585"><ele>324.0</ele><time>2026-03-30T20:51:49Z</time></trkpt><trkpt lat="42.12490981031736" lon="-1.1385198023570193"><ele>324.0</ele><time>2026-03-30T20:53:40Z</time></trkpt><trkpt lat="42.124825236692516" lon="-1.1385187142035198"><ele>324.0</ele><time>2026-03-30T20:53:43Z</time></trkpt><trkpt lat="42.124755855" lon="-1.13861781"><ele>324.0</ele><time>2026-03-30T20:54:14.921Z</time></trkpt><trkpt lat="42.12483832885318" lon="-1.1385607973279148"><ele>324.0</ele><time>2026-03-30T20:54:34.55Z</time></trkpt><trkpt lat="42.12483928819722" lon="-1.1384635601388364"><ele>324.0</ele><time>2026-03-30T20:54:39.3Z</time></trkpt><trkpt lat="42.12477450996387" lon="-1.1384403179821008"><ele>324.0</ele><time>2026-03-30T20:54:47Z</time></trkpt><trkpt lat="42.12516780944283" lon="-1.138662405119256"><ele>324.0</ele><time>2026-03-30T20:55:16.4Z</time></trkpt><trkpt lat="42.12522880952228" lon="-1.1387064171256365"><ele>324.0</ele><time>2026-03-30T20:55:18.2Z</time></trkpt><trkpt lat="42.12496137304437" lon="-1.1386287583966814"><ele>324.0</ele><time>2026-03-30T20:55:21.5Z</time></trkpt><trkpt lat="42.12489246490217" lon="-1.1386322925353114"><ele>324.0</ele><time>2026-03-30T20:55:35.026Z</time></trkpt><trkpt lat="42.12491408961135" lon="-1.1385374935123511"><ele>324.0</ele><time>2026-03-30T20:55:37.026Z</time></trkpt><trkpt lat="42.12482918971983" lon="-1.1384738607557339"><ele>324.0</ele><time>2026-03-30T20:55:41.025Z</time></trkpt><trkpt lat="42.1247487867498" lon="-1.1384493471454677"><ele>324.0</ele><time>2026-03-30T20:55:45Z</time></trkpt><trkpt lat="42.12471742167454" lon="-1.1386176946226036"><ele>324.0</ele><time>2026-03-30T20:56:40.954Z</time></trkpt><trkpt lat="42.12478642604284" lon="-1.1386636466633042"><ele>324.0</ele><time>2026-03-30T20:57:05Z</time></trkpt><trkpt lat="42.12484586381127" lon="-1.1385774175175352"><ele>324.2</ele><time>2026-03-30T20:59:00Z</time></trkpt><trkpt lat="42.125030101731106" lon="-1.1385900518629573"><ele>324.4</ele><time>2026-03-30T20:59:04Z</time></trkpt><trkpt lat="42.125113255338775" lon="-1.1385960824791457"><ele>324.6</ele><time>2026-03-30T20:59:05Z</time></trkpt><trkpt lat="42.1251922954134" lon="-1.138600933802485"><ele>324.8</ele><time>2026-03-30T20:59:06Z</time></trkpt><trkpt lat="42.1252687301322" lon="-1.138608506574262"><ele>325.0</ele><time>2026-03-30T20:59:07Z</time></trkpt><trkpt lat="42.12534017042429" lon="-1.138615901318097"><ele>325.0</ele><time>2026-03-30T20:59:08Z</time></trkpt><trkpt lat="42.125443745403196" lon="-1.1386217436323478"><ele>325.0</ele><time>2026-03-30T20:59:10Z</time></trkpt><trkpt lat="42.12552906339905" lon="-1.1386298952673903"><ele>325.0</ele><time>2026-03-30T20:59:12Z</time></trkpt><trkpt lat="42.125600218043246" lon="-1.1386348671084277"><ele>325.0</ele><time>2026-03-30T20:59:14Z</time></trkpt><trkpt lat="42.125683376618326" lon="-1.138608961804229"><ele>325.0</ele><time>2026-03-30T21:01:53Z</time></trkpt><trkpt lat="42.12580410957042" lon="-1.138636245487703"><ele>325.16666666666663</ele><time>2026-03-30T21:01:55Z</time></trkpt><trkpt lat="42.12587490602839" lon="-1.1386527657227257"><ele>325.3333333333333</ele><time>2026-03-30T21:01:56Z</time></trkpt><trkpt lat="42.12594561919937" lon="-1.138667115252908"><ele>325.5</ele><time>2026-03-30T21:01:57Z</time></trkpt><trkpt lat="42.12601691563357" lon="-1.138679600803685"><ele>325.6666666666667</ele><time>2026-03-30T21:01:58Z</time></trkpt><trkpt lat="42.12609417454041" lon="-1.1386934414794014"><ele>325.83333333333337</ele><time>2026-03-30T21:01:59Z</time></trkpt><trkpt lat="42.126173710483826" lon="-1.1386968510758757"><ele>326.0</ele><time>2026-03-30T21:02:00Z</time></trkpt><trkpt lat="42.126251773259575" lon="-1.1387003378417793"><ele>326.0</ele><time>2026-03-30T21:02:01Z</time></trkpt><trkpt lat="42.12632547513053" lon="-1.1387080612851963"><ele>326.0</ele><time>2026-03-30T21:02:02Z</time></trkpt><trkpt lat="42.12639582172115" lon="-1.1387136975480445"><ele>326.0</ele><time>2026-03-30T21:02:03Z</time></trkpt><trkpt lat="42.12646713239017" lon="-1.1387214252948596"><ele>326.0</ele><time>2026-03-30T21:02:04Z</time></trkpt><trkpt lat="42.12654939533449" lon="-1.138732338576583"><ele>326.0</ele><time>2026-03-30T21:02:06Z</time></trkpt><trkpt lat="42.12664607024227" lon="-1.138749124351906"><ele>326.0</ele><time>2026-03-30T21:02:09Z</time></trkpt><trkpt lat="42.12673348741696" lon="-1.138748954597633"><ele>326.20000000000005</ele><time>2026-03-30T21:03:03Z</time></trkpt><trkpt lat="42.126801493975755" lon="-1.138749680453176"><ele>326.40000000000003</ele><time>2026-03-30T21:03:05Z</time></trkpt><trkpt lat="42.12684218947633" lon="-1.1389191198212794"><ele>326.6</ele><time>2026-03-30T21:03:09Z</time></trkpt><trkpt lat="42.126806509328574" lon="-1.139015299934809"><ele>326.8</ele><time>2026-03-30T21:03:10Z</time></trkpt><trkpt lat="42.126771188782044" lon="-1.1391198896175476"><ele>327.0</ele><time>2026-03-30T21:03:11Z</time></trkpt><trkpt lat="42.12673017758086" lon="-1.139238285143495"><ele>327.20000000000005</ele><time>2026-03-30T21:03:12Z</time></trkpt><trkpt lat="42.12668535639867" lon="-1.139364885101461"><ele>327.4</ele><time>2026-03-30T21:03:13Z</time></trkpt><trkpt lat="42.12663962841497" lon="-1.1394992786970601"><ele>327.6</ele><time>2026-03-30T21:03:14Z</time></trkpt><trkpt lat="42.12659047357383" lon="-1.1396350072811758"><ele>327.79999999999995</ele><time>2026-03-30T21:03:15Z</time></trkpt><trkpt lat="42.12654035677663" lon="-1.1397677699490367"><ele>328.0</ele><time>2026-03-30T21:03:16Z</time></trkpt><trkpt lat="42.12649057994948" lon="-1.1399094620234949"><ele>327.59999999999997</ele><time>2026-03-30T21:03:17Z</time></trkpt><trkpt lat="42.126437662446804" lon="-1.1400508650424315"><ele>327.2</ele><time>2026-03-30T21:03:18Z</time></trkpt><trkpt lat="42.126389587649776" lon="-1.140182764691122"><ele>326.8</ele><time>2026-03-30T21:03:19Z</time></trkpt><trkpt lat="42.126353217924816" lon="-1.1402900356842738"><ele>326.4</ele><time>2026-03-30T21:03:20Z</time></trkpt><trkpt lat="42.12631817591501" lon="-1.1403942121527846"><ele>326.0</ele><time>2026-03-30T21:03:21Z</time></trkpt><trkpt lat="42.12628112984071" lon="-1.140502047593581"><ele>326.0</ele><time>2026-03-30T21:03:21.999Z</time></trkpt><trkpt lat="42.126236546110874" lon="-1.140627568239651"><ele>326.0</ele><time>2026-03-30T21:03:22.999Z</time></trkpt><trkpt lat="42.126190202510884" lon="-1.1407544690709928"><ele>326.0</ele><time>2026-03-30T21:03:23.999Z</time></trkpt><trkpt lat="42.12614106594693" lon="-1.1408889264981747"><ele>326.0</ele><time>2026-03-30T21:03:25Z</time></trkpt><trkpt lat="42.12609304390601" lon="-1.14102427041272"><ele>326.0</ele><time>2026-03-30T21:03:26Z</time></trkpt><trkpt lat="42.126046384525765" lon="-1.141149480220044"><ele>325.6</ele><time>2026-03-30T21:03:27Z</time></trkpt><trkpt lat="42.12600464229183" lon="-1.1412710083971216"><ele>325.20000000000005</ele><time>2026-03-30T21:03:27.999Z</time></trkpt><trkpt lat="42.12595735641237" lon="-1.1413904957056094"><ele>324.79999999999995</ele><time>2026-03-30T21:03:29Z</time></trkpt><trkpt lat="42.125918380267564" lon="-1.1414958591999687"><ele>324.4</ele><time>2026-03-30T21:03:30Z</time></trkpt><trkpt lat="42.12588426922996" lon="-1.1416086550416975"><ele>324.0</ele><time>2026-03-30T21:03:31Z</time></trkpt><trkpt lat="42.125844143935915" lon="-1.1417222544870769"><ele>323.8333333333333</ele><time>2026-03-30T21:03:32Z</time></trkpt><trkpt lat="42.12581183603189" lon="-1.141824797224279"><ele>323.6666666666667</ele><time>2026-03-30T21:03:33Z</time></trkpt><trkpt lat="42.125774817049866" lon="-1.1419180620815854"><ele>323.5</ele><time>2026-03-30T21:03:34Z</time></trkpt><trkpt lat="42.12572738167565" lon="-1.1420406686421516"><ele>323.33333333333337</ele><time>2026-03-30T21:03:36Z</time></trkpt><trkpt lat="42.125693860513046" lon="-1.1421369224550306"><ele>323.1666666666667</ele><time>2026-03-30T21:03:39Z</time></trkpt><trkpt lat="42.12566171625712" lon="-1.1422377133295556"><ele>323.0</ele><time>2026-03-30T21:03:50Z</time></trkpt><trkpt lat="42.125654584543355" lon="-1.1423789077273212"><ele>322.83333333333337</ele><time>2026-03-30T21:03:52Z</time></trkpt><trkpt lat="42.12567291670956" lon="-1.1424637889210665"><ele>322.6666666666667</ele><time>2026-03-30T21:03:53Z</time></trkpt><trkpt lat="42.125698992408864" lon="-1.1425737470768338"><ele>322.5</ele><time>2026-03-30T21:03:54Z</time></trkpt><trkpt lat="42.125732800730006" lon="-1.1426964737667173"><ele>322.3333333333333</ele><time>2026-03-30T21:03:55Z</time></trkpt><trkpt lat="42.12577531492764" lon="-1.1428129471780089"><ele>322.16666666666663</ele><time>2026-03-30T21:03:56Z</time></trkpt><trkpt lat="42.125815761539556" lon="-1.1429311743529444"><ele>322.0</ele><time>2026-03-30T21:03:57Z</time></trkpt><trkpt lat="42.12586566855234" lon="-1.1430470811414157"><ele>322.0</ele><time>2026-03-30T21:03:58Z</time></trkpt><trkpt lat="42.1259168024798" lon="-1.1431782666024586"><ele>322.0</ele><time>2026-03-30T21:03:59Z</time></trkpt><trkpt lat="42.12595470519317" lon="-1.143288930801084"><ele>322.0</ele><time>2026-03-30T21:04:00Z</time></trkpt><trkpt lat="42.12600539001654" lon="-1.143414414943621"><ele>322.0</ele><time>2026-03-30T21:04:01Z</time></trkpt><trkpt lat="42.12606187367457" lon="-1.1435342104391284"><ele>322.0</ele><time>2026-03-30T21:04:02Z</time></trkpt><trkpt lat="42.12611380542322" lon="-1.143644548390036"><ele>321.5</ele><time>2026-03-30T21:04:03Z</time></trkpt><trkpt lat="42.126174704348" lon="-1.1437615713881524"><ele>321.0</ele><time>2026-03-30T21:04:04Z</time></trkpt><trkpt lat="42.12623080524937" lon="-1.1438838565049783"><ele>320.5</ele><time>2026-03-30T21:04:05Z</time></trkpt><trkpt lat="42.12629804439876" lon="-1.1440203305625327"><ele>320.0</ele><time>2026-03-30T21:04:06Z</time></trkpt><trkpt lat="42.126368991081414" lon="-1.1441797640148266"><ele>318.6666666666667</ele><time>2026-03-30T21:04:07Z</time></trkpt><trkpt lat="42.126452290334974" lon="-1.1443592881882132"><ele>317.3333333333333</ele><time>2026-03-30T21:04:08Z</time></trkpt><trkpt lat="42.126539459085265" lon="-1.1445282639781733"><ele>316.0</ele><time>2026-03-30T21:04:09Z</time></trkpt><trkpt lat="42.126623004358066" lon="-1.1446927432147267"><ele>316.0</ele><time>2026-03-30T21:04:10Z</time></trkpt><trkpt lat="42.12670338825959" lon="-1.144853906801323"><ele>316.0</ele><time>2026-03-30T21:04:11Z</time></trkpt><trkpt lat="42.12678962414889" lon="-1.1450224342784243"><ele>316.0</ele><time>2026-03-30T21:04:12Z</time></trkpt><trkpt lat="42.12688119976421" lon="-1.145191468351893"><ele>316.0</ele><time>2026-03-30T21:04:13Z</time></trkpt><trkpt lat="42.126975835036724" lon="-1.1453713091574684"><ele>316.0</ele><time>2026-03-30T21:04:14Z</time></trkpt><trkpt lat="42.127062164887846" lon="-1.145543883939108"><ele>316.0</ele><time>2026-03-30T21:04:15Z</time></trkpt><trkpt lat="42.127149552848856" lon="-1.1457198371917172"><ele>316.25</ele><time>2026-03-30T21:04:16Z</time></trkpt><trkpt lat="42.127235201739076" lon="-1.1458830309423444"><ele>316.5</ele><time>2026-03-30T21:04:17Z</time></trkpt><trkpt lat="42.12731761530892" lon="-1.146036302507696"><ele>316.75</ele><time>2026-03-30T21:04:18Z</time></trkpt><trkpt lat="42.12739894255034" lon="-1.1461727096881227"><ele>317.0</ele><time>2026-03-30T21:04:19Z</time></trkpt><trkpt lat="42.127476998545376" lon="-1.1462980103467642"><ele>317.0</ele><time>2026-03-30T21:04:20Z</time></trkpt><trkpt lat="42.12755414985976" lon="-1.1464079997815806"><ele>317.0</ele><time>2026-03-30T21:04:21Z</time></trkpt><trkpt lat="42.12764083254418" lon="-1.1464882382765822"><ele>317.0</ele><time>2026-03-30T21:04:22Z</time></trkpt><trkpt lat="42.12774354356854" lon="-1.1465391338492839"><ele>317.0</ele><time>2026-03-30T21:04:23Z</time></trkpt><trkpt lat="42.12785870988102" lon="-1.1465594465036832"><ele>317.0</ele><time>2026-03-30T21:04:24Z</time></trkpt><trkpt lat="42.12795770302578" lon="-1.146596879879958"><ele>317.2</ele><time>2026-03-30T21:04:25Z</time></trkpt><trkpt lat="42.12802275741699" lon="-1.1466825394172724"><ele>317.4</ele><time>2026-03-30T21:04:26Z</time></trkpt><trkpt lat="42.12805632454812" lon="-1.1468047512909751"><ele>317.6</ele><time>2026-03-30T21:04:27Z</time></trkpt><trkpt lat="42.12805169297462" lon="-1.1469378215793957"><ele>317.8</ele><time>2026-03-30T21:04:28Z</time></trkpt><trkpt lat="42.1280144716583" lon="-1.1470655504983427"><ele>318.0</ele><time>2026-03-30T21:04:29Z</time></trkpt><trkpt lat="42.12794756019467" lon="-1.1471717137339323"><ele>318.0</ele><time>2026-03-30T21:04:30Z</time></trkpt><trkpt lat="42.12784192682672" lon="-1.1472276685883644"><ele>318.0</ele><time>2026-03-30T21:04:31Z</time></trkpt><trkpt lat="42.127817239442" lon="-1.147388659857412"><ele>318.0</ele><time>2026-03-30T21:04:32Z</time></trkpt><trkpt lat="42.127813485970655" lon="-1.1475144978858647"><ele>318.0</ele><time>2026-03-30T21:04:33Z</time></trkpt><trkpt lat="42.1278444987995" lon="-1.147659703030376"><ele>318.0</ele><time>2026-03-30T21:04:34Z</time></trkpt><trkpt lat="42.127900352100454" lon="-1.1478242030875039"><ele>318.0</ele><time>2026-03-30T21:04:35Z</time></trkpt><trkpt lat="42.12796878542532" lon="-1.148011834574956"><ele>318.0</ele><time>2026-03-30T21:04:36Z</time></trkpt><trkpt lat="42.12803964530267" lon="-1.1482134221245701"><ele>318.0</ele><time>2026-03-30T21:04:37Z</time></trkpt><trkpt lat="42.128104756604834" lon="-1.1484133348614587"><ele>318.0</ele><time>2026-03-30T21:04:38Z</time></trkpt><trkpt lat="42.128167585142045" lon="-1.148614439044732"><ele>318.0</ele><time>2026-03-30T21:04:39Z</time></trkpt><trkpt lat="42.12823060041961" lon="-1.1488131030295774"><ele>318.0</ele><time>2026-03-30T21:04:40Z</time></trkpt><trkpt lat="42.12829210820234" lon="-1.1490078387000497"><ele>317.75</ele><time>2026-03-30T21:04:41Z</time></trkpt><trkpt lat="42.12835048282059" lon="-1.149195503657527"><ele>317.5</ele><time>2026-03-30T21:04:42Z</time></trkpt><trkpt lat="42.12840497809696" lon="-1.149374439969576"><ele>317.25</ele><time>2026-03-30T21:04:43Z</time></trkpt><trkpt lat="42.12845422591991" lon="-1.1495368360182896"><ele>317.0</ele><time>2026-03-30T21:04:44Z</time></trkpt><trkpt lat="42.12850097619625" lon="-1.1496895275909678"><ele>317.0</ele><time>2026-03-30T21:04:45Z</time></trkpt><trkpt lat="42.12854392266479" lon="-1.1498114333382812"><ele>317.0</ele><time>2026-03-30T21:04:46Z</time></trkpt><trkpt lat="42.12859820985887" lon="-1.1499194555256165"><ele>317.0</ele><time>2026-03-30T21:04:47Z</time></trkpt><trkpt lat="42.128645088561456" lon="-1.1500500201687904"><ele>317.0</ele><time>2026-03-30T21:04:48Z</time></trkpt><trkpt lat="42.12875021544578" lon="-1.1501361055037127"><ele>317.0</ele><time>2026-03-30T21:04:49Z</time></trkpt><trkpt lat="42.12887571196746" lon="-1.1501497958413738"><ele>317.0</ele><time>2026-03-30T21:04:50Z</time></trkpt><trkpt lat="42.1289589969956" lon="-1.1502168443637286"><ele>317.0</ele><time>2026-03-30T21:04:51Z</time></trkpt><trkpt lat="42.12905631958797" lon="-1.1502972028744258"><ele>317.0</ele><time>2026-03-30T21:04:52Z</time></trkpt><trkpt lat="42.129132345026385" lon="-1.1504069949075633"><ele>317.0</ele><time>2026-03-30T21:04:53Z</time></trkpt><trkpt lat="42.129158957296696" lon="-1.1505560640451302"><ele>317.0</ele><time>2026-03-30T21:04:54Z</time></trkpt><trkpt lat="42.12916802842223" lon="-1.1506961419291921"><ele>317.0</ele><time>2026-03-30T21:04:55Z</time></trkpt><trkpt lat="42.12916418169412" lon="-1.1508302406104294"><ele>317.0</ele><time>2026-03-30T21:04:56Z</time></trkpt><trkpt lat="42.12916418169494" lon="-1.1509414475586919"><ele>317.0</ele><time>2026-03-30T21:04:57Z</time></trkpt><trkpt lat="42.12941650598362" lon="-1.151006044327313"><ele>317.0</ele><time>2026-03-30T21:04:58Z</time></trkpt><trkpt lat="42.129548277347034" lon="-1.151049995694289"><ele>317.0</ele><time>2026-03-30T21:04:59Z</time></trkpt><trkpt lat="42.12968901049078" lon="-1.1510962032304795"><ele>317.0</ele><time>2026-03-30T21:05:00Z</time></trkpt><trkpt lat="42.12983141561785" lon="-1.1511484245687928"><ele>317.0</ele><time>2026-03-30T21:05:01Z</time></trkpt><trkpt lat="42.12999207530224" lon="-1.1511886655036871"><ele>317.0</ele><time>2026-03-30T21:05:02Z</time></trkpt><trkpt lat="42.13015178187715" lon="-1.1511931801970536"><ele>317.0</ele><time>2026-03-30T21:05:03Z</time></trkpt><trkpt lat="42.130303638942785" lon="-1.1511420063483506"><ele>317.0</ele><time>2026-03-30T21:05:04Z</time></trkpt><trkpt lat="42.13044288181989" lon="-1.1510508439420024"><ele>317.0</ele><time>2026-03-30T21:05:05Z</time></trkpt><trkpt lat="42.13056807686858" lon="-1.1509337380368094"><ele>317.0</ele><time>2026-03-30T21:05:06Z</time></trkpt><trkpt lat="42.130697561331694" lon="-1.1508181107208089"><ele>317.0</ele><time>2026-03-30T21:05:07Z</time></trkpt><trkpt lat="42.13083078917778" lon="-1.1507115396961973"><ele>317.33333333333337</ele><time>2026-03-30T21:05:08Z</time></trkpt><trkpt lat="42.1309673408883" lon="-1.150615745770841"><ele>317.6666666666667</ele><time>2026-03-30T21:05:09Z</time></trkpt><trkpt lat="42.131108299977015" lon="-1.1505479473046294"><ele>318.0</ele><time>2026-03-30T21:05:10Z</time></trkpt><trkpt lat="42.13125295180536" lon="-1.1505196249204444"><ele>318.0</ele><time>2026-03-30T21:05:11Z</time></trkpt><trkpt lat="42.131398604657264" lon="-1.1505354310143732"><ele>318.0</ele><time>2026-03-30T21:05:12Z</time></trkpt><trkpt lat="42.131546006562154" lon="-1.150597599156861"><ele>318.0</ele><time>2026-03-30T21:05:13Z</time></trkpt><trkpt lat="42.131691057889604" lon="-1.150717819057738"><ele>319.0</ele><time>2026-03-30T21:05:14Z</time></trkpt><trkpt lat="42.13184044736569" lon="-1.150843024843577"><ele>320.0</ele><time>2026-03-30T21:05:15Z</time></trkpt><trkpt lat="42.131996472909485" lon="-1.150979404003723"><ele>321.0</ele><time>2026-03-30T21:05:16Z</time></trkpt><trkpt lat="42.13215808499902" lon="-1.151119007134565"><ele>321.0</ele><time>2026-03-30T21:05:17Z</time></trkpt><trkpt lat="42.13231754735763" lon="-1.1512579205876268"><ele>321.0</ele><time>2026-03-30T21:05:18Z</time></trkpt><trkpt lat="42.13248107556414" lon="-1.151402311639166"><ele>321.0</ele><time>2026-03-30T21:05:19Z</time></trkpt><trkpt lat="42.13265193895572" lon="-1.1515508877176914"><ele>320.3333333333333</ele><time>2026-03-30T21:05:20Z</time></trkpt><trkpt lat="42.132820638867734" lon="-1.1516967124404762"><ele>319.66666666666663</ele><time>2026-03-30T21:05:21Z</time></trkpt><trkpt lat="42.13298009904061" lon="-1.1518359098952844"><ele>319.0</ele><time>2026-03-30T21:05:22Z</time></trkpt><trkpt lat="42.133139791272896" lon="-1.151971460217524"><ele>319.3333333333333</ele><time>2026-03-30T21:05:23Z</time></trkpt><trkpt lat="42.1332975070193" lon="-1.1521112086243306"><ele>319.6666666666667</ele><time>2026-03-30T21:05:24Z</time></trkpt><trkpt lat="42.133456062723965" lon="-1.1522502413667763"><ele>320.0</ele><time>2026-03-30T21:05:25Z</time></trkpt><trkpt lat="42.13362165405554" lon="-1.152394523954049"><ele>320.0</ele><time>2026-03-30T21:05:26Z</time></trkpt><trkpt lat="42.13378990203076" lon="-1.1525386257781602"><ele>320.0</ele><time>2026-03-30T21:05:27Z</time></trkpt><trkpt lat="42.13395533912552" lon="-1.152678582251569"><ele>320.0</ele><time>2026-03-30T21:05:28Z</time></trkpt><trkpt lat="42.134122114534094" lon="-1.1528189289548603"><ele>320.6666666666667</ele><time>2026-03-30T21:05:29Z</time></trkpt><trkpt lat="42.134287829668146" lon="-1.1529626993124822"><ele>321.3333333333333</ele><time>2026-03-30T21:05:30Z</time></trkpt><trkpt lat="42.13445748413435" lon="-1.1531071316855244"><ele>322.0</ele><time>2026-03-30T21:05:31Z</time></trkpt><trkpt lat="42.134629319697325" lon="-1.1532574692284316"><ele>323.0</ele><time>2026-03-30T21:05:32Z</time></trkpt><trkpt lat="42.1348068852894" lon="-1.153416791515218"><ele>324.0</ele><time>2026-03-30T21:05:33Z</time></trkpt><trkpt lat="42.13498433234581" lon="-1.1535741991171315"><ele>325.0</ele><time>2026-03-30T21:05:34Z</time></trkpt><trkpt lat="42.13516102050379" lon="-1.1537274184943507"><ele>325.3333333333333</ele><time>2026-03-30T21:05:35Z</time></trkpt><trkpt lat="42.13534141369068" lon="-1.1538824967536214"><ele>325.6666666666667</ele><time>2026-03-30T21:05:36Z</time></trkpt><trkpt lat="42.13552113950091" lon="-1.154029711776631"><ele>326.0</ele><time>2026-03-30T21:05:37Z</time></trkpt><trkpt lat="42.13569758703743" lon="-1.1541782925700415"><ele>326.0</ele><time>2026-03-30T21:05:38Z</time></trkpt><trkpt lat="42.13586735494631" lon="-1.1543287005581497"><ele>326.0</ele><time>2026-03-30T21:05:39Z</time></trkpt><trkpt lat="42.13603524193518" lon="-1.1544799555382954"><ele>326.0</ele><time>2026-03-30T21:05:40Z</time></trkpt><trkpt lat="42.136204129441" lon="-1.154630156557745"><ele>326.0</ele><time>2026-03-30T21:05:41Z</time></trkpt><trkpt lat="42.136381135861974" lon="-1.154783793701322"><ele>326.0</ele><time>2026-03-30T21:05:42Z</time></trkpt><trkpt lat="42.13656754126902" lon="-1.154940931733563"><ele>326.0</ele><time>2026-03-30T21:05:43Z</time></trkpt><trkpt lat="42.136752956848525" lon="-1.1550992082308322"><ele>326.0</ele><time>2026-03-30T21:05:44Z</time></trkpt><trkpt lat="42.13693190064852" lon="-1.1552539995810556"><ele>326.0</ele><time>2026-03-30T21:05:45Z</time></trkpt><trkpt lat="42.137112181475814" lon="-1.155409000012463"><ele>326.0</ele><time>2026-03-30T21:05:46Z</time></trkpt><trkpt lat="42.13728915568134" lon="-1.1555621690494546"><ele>327.33333333333337</ele><time>2026-03-30T21:05:47Z</time></trkpt><trkpt lat="42.13746887859947" lon="-1.155716295182098"><ele>328.6666666666667</ele><time>2026-03-30T21:05:48Z</time></trkpt><trkpt lat="42.13764451333316" lon="-1.155870222237828"><ele>330.0</ele><time>2026-03-30T21:05:49Z</time></trkpt><trkpt lat="42.137820819623236" lon="-1.1560212638173821"><ele>330.0</ele><time>2026-03-30T21:05:50Z</time></trkpt><trkpt lat="42.137996967582325" lon="-1.1561788517270375"><ele>330.0</ele><time>2026-03-30T21:05:51Z</time></trkpt><trkpt lat="42.138171732205244" lon="-1.1563314879913509"><ele>330.0</ele><time>2026-03-30T21:05:52Z</time></trkpt><trkpt lat="42.13834937407813" lon="-1.1564847544529981"><ele>331.0</ele><time>2026-03-30T21:05:53Z</time></trkpt><trkpt lat="42.13852760420826" lon="-1.1566337381415897"><ele>332.0</ele><time>2026-03-30T21:05:54Z</time></trkpt><trkpt lat="42.138703767147895" lon="-1.156787709280701"><ele>333.0</ele><time>2026-03-30T21:05:55Z</time></trkpt><trkpt lat="42.13888050045702" lon="-1.1569378555690886"><ele>333.0</ele><time>2026-03-30T21:05:56Z</time></trkpt><trkpt lat="42.139052059999905" lon="-1.1570885543068874"><ele>333.0</ele><time>2026-03-30T21:05:57Z</time></trkpt><trkpt lat="42.139227129902515" lon="-1.1572344616840635"><ele>333.0</ele><time>2026-03-30T21:05:58Z</time></trkpt><trkpt lat="42.13940115666695" lon="-1.1573836528888266"><ele>333.0</ele><time>2026-03-30T21:05:59Z</time></trkpt><trkpt lat="42.13957386948625" lon="-1.1575356935712502"><ele>333.0</ele><time>2026-03-30T21:06:00Z</time></trkpt><trkpt lat="42.13974885940972" lon="-1.1576869168681543"><ele>333.0</ele><time>2026-03-30T21:06:01Z</time></trkpt><trkpt lat="42.139921451600834" lon="-1.1578359495331239"><ele>332.6666666666667</ele><time>2026-03-30T21:06:02Z</time></trkpt><trkpt lat="42.140100054117994" lon="-1.1579875940586877"><ele>332.33333333333337</ele><time>2026-03-30T21:06:03Z</time></trkpt><trkpt lat="42.140273529384274" lon="-1.1581382985933213"><ele>332.0</ele><time>2026-03-30T21:06:04Z</time></trkpt><trkpt lat="42.14044983600138" lon="-1.1582899028028046"><ele>332.6666666666667</ele><time>2026-03-30T21:06:05Z</time></trkpt><trkpt lat="42.14062215575295" lon="-1.1584387377319396"><ele>333.3333333333333</ele><time>2026-03-30T21:06:06Z</time></trkpt><trkpt lat="42.14079585710623" lon="-1.1585898002694457"><ele>334.0</ele><time>2026-03-30T21:06:07Z</time></trkpt><trkpt lat="42.140969761892954" lon="-1.158741850948627"><ele>334.0</ele><time>2026-03-30T21:06:08Z</time></trkpt><trkpt lat="42.14114787775132" lon="-1.1588929705586906"><ele>334.0</ele><time>2026-03-30T21:06:09Z</time></trkpt><trkpt lat="42.14132355561585" lon="-1.1590467950539294"><ele>334.0</ele><time>2026-03-30T21:06:10Z</time></trkpt><trkpt lat="42.141498919603265" lon="-1.159194271229493"><ele>335.3333333333333</ele><time>2026-03-30T21:06:11Z</time></trkpt><trkpt lat="42.141676348075144" lon="-1.1593516560635868"><ele>336.6666666666667</ele><time>2026-03-30T21:06:12Z</time></trkpt><trkpt lat="42.14185538228316" lon="-1.1595072162101903"><ele>338.0</ele><time>2026-03-30T21:06:13Z</time></trkpt><trkpt lat="42.14203822398617" lon="-1.1596624511195384"><ele>338.0</ele><time>2026-03-30T21:06:14Z</time></trkpt><trkpt lat="42.1422259181721" lon="-1.1598261314426754"><ele>338.0</ele><time>2026-03-30T21:06:15Z</time></trkpt><trkpt lat="42.14241393328565" lon="-1.1599862068228994"><ele>338.0</ele><time>2026-03-30T21:06:16Z</time></trkpt><trkpt lat="42.14259822999936" lon="-1.1601427432524227"><ele>337.0</ele><time>2026-03-30T21:06:17Z</time></trkpt><trkpt lat="42.14278000473047" lon="-1.160302092016491"><ele>336.0</ele><time>2026-03-30T21:06:18Z</time></trkpt><trkpt lat="42.14296326271436" lon="-1.1604640927704606"><ele>335.0</ele><time>2026-03-30T21:06:19Z</time></trkpt><trkpt lat="42.14314562745398" lon="-1.1606169509245385"><ele>335.6666666666667</ele><time>2026-03-30T21:06:20Z</time></trkpt><trkpt lat="42.143326881563226" lon="-1.1607729335447348"><ele>336.3333333333333</ele><time>2026-03-30T21:06:21Z</time></trkpt><trkpt lat="42.14350877148767" lon="-1.1609307260247297"><ele>337.0</ele><time>2026-03-30T21:06:22Z</time></trkpt><trkpt lat="42.14368752470821" lon="-1.1610872102462435"><ele>337.0</ele><time>2026-03-30T21:06:23Z</time></trkpt><trkpt lat="42.14386183466059" lon="-1.1612389120628097"><ele>337.0</ele><time>2026-03-30T21:06:24Z</time></trkpt><trkpt lat="42.14403812062972" lon="-1.1613895232070777"><ele>337.0</ele><time>2026-03-30T21:06:25Z</time></trkpt><trkpt lat="42.14421306221702" lon="-1.1615406070421934"><ele>336.3333333333333</ele><time>2026-03-30T21:06:26Z</time></trkpt><trkpt lat="42.14438482007855" lon="-1.1616928022554074"><ele>335.6666666666667</ele><time>2026-03-30T21:06:27Z</time></trkpt><trkpt lat="42.144560896205085" lon="-1.1618423960363486"><ele>335.0</ele><time>2026-03-30T21:06:28Z</time></trkpt><trkpt lat="42.14473372679909" lon="-1.161989524647449"><ele>335.6666666666667</ele><time>2026-03-30T21:06:29Z</time></trkpt><trkpt lat="42.14490808253173" lon="-1.1621377127934676"><ele>336.3333333333333</ele><time>2026-03-30T21:06:30Z</time></trkpt><trkpt lat="42.14508413150817" lon="-1.1622920803067438"><ele>337.0</ele><time>2026-03-30T21:06:31Z</time></trkpt><trkpt lat="42.14526725844135" lon="-1.1624405752575675"><ele>337.0</ele><time>2026-03-30T21:06:32Z</time></trkpt><trkpt lat="42.145448851519895" lon="-1.1625975233128465"><ele>337.0</ele><time>2026-03-30T21:06:33Z</time></trkpt><trkpt lat="42.14563187128467" lon="-1.1627628180019176"><ele>337.0</ele><time>2026-03-30T21:06:34Z</time></trkpt><trkpt lat="42.145821472342824" lon="-1.1629257630703453"><ele>337.0</ele><time>2026-03-30T21:06:35Z</time></trkpt><trkpt lat="42.14601214208711" lon="-1.163093363121524"><ele>337.0</ele><time>2026-03-30T21:06:36Z</time></trkpt><trkpt lat="42.14620124471838" lon="-1.1632600618667899"><ele>337.0</ele><time>2026-03-30T21:06:37Z</time></trkpt><trkpt lat="42.14639062799873" lon="-1.1634260316923222"><ele>337.0</ele><time>2026-03-30T21:06:38Z</time></trkpt><trkpt lat="42.146586245699936" lon="-1.1635919844345874"><ele>337.5</ele><time>2026-03-30T21:06:39Z</time></trkpt><trkpt lat="42.146781134802204" lon="-1.1637586056435139"><ele>338.0</ele><time>2026-03-30T21:06:40Z</time></trkpt><trkpt lat="42.14697599161613" lon="-1.1639238661683962"><ele>337.5</ele><time>2026-03-30T21:06:41Z</time></trkpt><trkpt lat="42.147169255178945" lon="-1.1640906057766733"><ele>337.0</ele><time>2026-03-30T21:06:42Z</time></trkpt><trkpt lat="42.14736022659341" lon="-1.1642591008396692"><ele>339.0</ele><time>2026-03-30T21:06:43Z</time></trkpt><trkpt lat="42.14755602744304" lon="-1.164428251460189"><ele>341.0</ele><time>2026-03-30T21:06:44Z</time></trkpt><trkpt lat="42.14775365524777" lon="-1.1645971806213482"><ele>341.0</ele><time>2026-03-30T21:06:45Z</time></trkpt><trkpt lat="42.14795159816657" lon="-1.1647671710401895"><ele>341.0</ele><time>2026-03-30T21:06:46Z</time></trkpt><trkpt lat="42.14814849489602" lon="-1.164936695889675"><ele>340.5</ele><time>2026-03-30T21:06:47Z</time></trkpt><trkpt lat="42.148344720338194" lon="-1.165108092642388"><ele>340.0</ele><time>2026-03-30T21:06:48Z</time></trkpt><trkpt lat="42.14854214388264" lon="-1.1652794857310838"><ele>340.0</ele><time>2026-03-30T21:06:49Z</time></trkpt><trkpt lat="42.148739385443776" lon="-1.1654527840027398"><ele>340.0</ele><time>2026-03-30T21:06:50Z</time></trkpt><trkpt lat="42.14893787861519" lon="-1.1656224419861347"><ele>340.0</ele><time>2026-03-30T21:06:51Z</time></trkpt><trkpt lat="42.14913693954633" lon="-1.165793817201274"><ele>340.0</ele><time>2026-03-30T21:06:52Z</time></trkpt><trkpt lat="42.149337886510224" lon="-1.1659652539738554"><ele>340.0</ele><time>2026-03-30T21:06:53Z</time></trkpt><trkpt lat="42.149537844795795" lon="-1.166136891207798"><ele>340.0</ele><time>2026-03-30T21:06:54Z</time></trkpt><trkpt lat="42.14973690205242" lon="-1.1663085241242914"><ele>341.0</ele><time>2026-03-30T21:06:55Z</time></trkpt><trkpt lat="42.14993221994963" lon="-1.166482197457735"><ele>342.0</ele><time>2026-03-30T21:06:56Z</time></trkpt><trkpt lat="42.15013535358058" lon="-1.16665949988745"><ele>342.5</ele><time>2026-03-30T21:06:57Z</time></trkpt><trkpt lat="42.150341534032044" lon="-1.1668364299149812"><ele>343.0</ele><time>2026-03-30T21:06:58Z</time></trkpt><trkpt lat="42.150545939575736" lon="-1.1670102082904166"><ele>343.0</ele><time>2026-03-30T21:06:59Z</time></trkpt><trkpt lat="42.15074412954674" lon="-1.167178206149848"><ele>343.0</ele><time>2026-03-30T21:07:00Z</time></trkpt><trkpt lat="42.15094188764937" lon="-1.167349033315604"><ele>343.0</ele><time>2026-03-30T21:07:01Z</time></trkpt><trkpt lat="42.15114009563558" lon="-1.1675199190961665"><ele>343.0</ele><time>2026-03-30T21:07:02Z</time></trkpt><trkpt lat="42.15133837949975" lon="-1.1676933471500714"><ele>343.0</ele><time>2026-03-30T21:07:03Z</time></trkpt><trkpt lat="42.15153557208675" lon="-1.1678638915533004"><ele>343.0</ele><time>2026-03-30T21:07:04Z</time></trkpt><trkpt lat="42.151731491059664" lon="-1.1680368093207771"><ele>344.5</ele><time>2026-03-30T21:07:05Z</time></trkpt><trkpt lat="42.15192884446975" lon="-1.168207466878404"><ele>346.0</ele><time>2026-03-30T21:07:06Z</time></trkpt><trkpt lat="42.15213515901809" lon="-1.16838241211308"><ele>346.0</ele><time>2026-03-30T21:07:07Z</time></trkpt><trkpt lat="42.15234994036638" lon="-1.168564880919939"><ele>346.0</ele><time>2026-03-30T21:07:08Z</time></trkpt><trkpt lat="42.15256161001347" lon="-1.1687435385052538"><ele>345.5</ele><time>2026-03-30T21:07:09Z</time></trkpt><trkpt lat="42.15276930704564" lon="-1.1689252024299865"><ele>345.0</ele><time>2026-03-30T21:07:10Z</time></trkpt><trkpt lat="42.15297423266594" lon="-1.1691053999021683"><ele>344.5</ele><time>2026-03-30T21:07:11Z</time></trkpt><trkpt lat="42.15317965073451" lon="-1.1692847788064331"><ele>344.0</ele><time>2026-03-30T21:07:12Z</time></trkpt><trkpt lat="42.1533806946144" lon="-1.16946126178409"><ele>345.5</ele><time>2026-03-30T21:07:13Z</time></trkpt><trkpt lat="42.153581027145684" lon="-1.1696323066130985"><ele>347.0</ele><time>2026-03-30T21:07:14Z</time></trkpt><trkpt lat="42.15377844870563" lon="-1.1697978511965643"><ele>347.0</ele><time>2026-03-30T21:07:15Z</time></trkpt><trkpt lat="42.15397073192619" lon="-1.169962449210455"><ele>347.0</ele><time>2026-03-30T21:07:16Z</time></trkpt><trkpt lat="42.154161989930834" lon="-1.170130051778901"><ele>348.5</ele><time>2026-03-30T21:07:17Z</time></trkpt><trkpt lat="42.15435614288214" lon="-1.1703034058173662"><ele>350.0</ele><time>2026-03-30T21:07:18Z</time></trkpt><trkpt lat="42.15454970116095" lon="-1.1704683277400019"><ele>350.0</ele><time>2026-03-30T21:07:19Z</time></trkpt><trkpt lat="42.154741921743714" lon="-1.1706307669022418"><ele>350.0</ele><time>2026-03-30T21:07:20Z</time></trkpt><trkpt lat="42.15493118776847" lon="-1.1707980625649517"><ele>349.6666666666667</ele><time>2026-03-30T21:07:21Z</time></trkpt><trkpt lat="42.15511866177831" lon="-1.170958475639599"><ele>349.3333333333333</ele><time>2026-03-30T21:07:22Z</time></trkpt><trkpt lat="42.15530824936362" lon="-1.171119947142394"><ele>349.0</ele><time>2026-03-30T21:07:23Z</time></trkpt><trkpt lat="42.15550395779222" lon="-1.1712872890776687"><ele>349.0</ele><time>2026-03-30T21:07:24Z</time></trkpt><trkpt lat="42.15570641734414" lon="-1.1714574988158082"><ele>349.0</ele><time>2026-03-30T21:07:25Z</time></trkpt><trkpt lat="42.155909556188966" lon="-1.1716334926958885"><ele>350.0</ele><time>2026-03-30T21:07:26Z</time></trkpt><trkpt lat="42.15611008532163" lon="-1.1718120473541944"><ele>351.0</ele><time>2026-03-30T21:07:27Z</time></trkpt><trkpt lat="42.15631599329885" lon="-1.17199227895447"><ele>351.0</ele><time>2026-03-30T21:07:28Z</time></trkpt><trkpt lat="42.15651819403285" lon="-1.1721651955492514"><ele>351.0</ele><time>2026-03-30T21:07:29Z</time></trkpt><trkpt lat="42.15672059028367" lon="-1.1723354939052195"><ele>351.5</ele><time>2026-03-30T21:07:30Z</time></trkpt><trkpt lat="42.15692749331038" lon="-1.1725174828764404"><ele>352.0</ele><time>2026-03-30T21:07:31Z</time></trkpt><trkpt lat="42.15713025568723" lon="-1.172689045606323"><ele>352.0</ele><time>2026-03-30T21:07:32Z</time></trkpt><trkpt lat="42.15733254927932" lon="-1.1728619539931235"><ele>352.0</ele><time>2026-03-30T21:07:33Z</time></trkpt><trkpt lat="42.15753232218648" lon="-1.1730354792969333"><ele>352.0</ele><time>2026-03-30T21:07:34Z</time></trkpt><trkpt lat="42.15773329045581" lon="-1.1732157440862039"><ele>352.0</ele><time>2026-03-30T21:07:35Z</time></trkpt><trkpt lat="42.157938017315566" lon="-1.1733892714192775"><ele>352.0</ele><time>2026-03-30T21:07:36Z</time></trkpt><trkpt lat="42.158139564529655" lon="-1.173561022076245"><ele>352.0</ele><time>2026-03-30T21:07:37Z</time></trkpt><trkpt lat="42.15834011942168" lon="-1.1737409974725812"><ele>352.0</ele><time>2026-03-30T21:07:38Z</time></trkpt><trkpt lat="42.15854658990362" lon="-1.1739202325356866"><ele>352.0</ele><time>2026-03-30T21:07:39Z</time></trkpt><trkpt lat="42.15875415509002" lon="-1.174100258727849"><ele>352.5</ele><time>2026-03-30T21:07:40Z</time></trkpt><trkpt lat="42.158961606082826" lon="-1.1742800060654093"><ele>353.0</ele><time>2026-03-30T21:07:41Z</time></trkpt><trkpt lat="42.15916721055442" lon="-1.1744541368839128"><ele>353.5</ele><time>2026-03-30T21:07:42Z</time></trkpt><trkpt lat="42.15937245576278" lon="-1.174629184770877"><ele>354.0</ele><time>2026-03-30T21:07:43Z</time></trkpt><trkpt lat="42.15957554864108" lon="-1.174796497312341"><ele>354.5</ele><time>2026-03-30T21:07:44Z</time></trkpt><trkpt lat="42.15977639562376" lon="-1.1749806430142125"><ele>355.0</ele><time>2026-03-30T21:07:45Z</time></trkpt><trkpt lat="42.1599825330059" lon="-1.175164741442197"><ele>355.0</ele><time>2026-03-30T21:07:46Z</time></trkpt><trkpt lat="42.16019414607658" lon="-1.175346241692719"><ele>355.0</ele><time>2026-03-30T21:07:47Z</time></trkpt><trkpt lat="42.16041068585541" lon="-1.1755301131325526"><ele>355.5</ele><time>2026-03-30T21:07:48Z</time></trkpt><trkpt lat="42.160622063061105" lon="-1.1757087097701522"><ele>356.0</ele><time>2026-03-30T21:07:49Z</time></trkpt><trkpt lat="42.16082973932171" lon="-1.1758909364702448"><ele>356.0</ele><time>2026-03-30T21:07:50Z</time></trkpt><trkpt lat="42.16104011856547" lon="-1.176074580261954"><ele>356.0</ele><time>2026-03-30T21:07:51Z</time></trkpt><trkpt lat="42.16125342633942" lon="-1.1762578009590439"><ele>356.0</ele><time>2026-03-30T21:07:52Z</time></trkpt><trkpt lat="42.16146623758548" lon="-1.1764442352507296"><ele>356.0</ele><time>2026-03-30T21:07:53Z</time></trkpt><trkpt lat="42.16167854966598" lon="-1.1766302510876128"><ele>356.5</ele><time>2026-03-30T21:07:54Z</time></trkpt><trkpt lat="42.16189110900093" lon="-1.17680776875284"><ele>357.0</ele><time>2026-03-30T21:07:55Z</time></trkpt><trkpt lat="42.16210198959489" lon="-1.1769865040192915"><ele>357.0</ele><time>2026-03-30T21:07:56Z</time></trkpt><trkpt lat="42.16230632459575" lon="-1.1771673706804364"><ele>357.0</ele><time>2026-03-30T21:07:57Z</time></trkpt><trkpt lat="42.1625102748489" lon="-1.1773449025842608"><ele>358.0</ele><time>2026-03-30T21:07:58Z</time></trkpt><trkpt lat="42.16271472843807" lon="-1.1775207997058756"><ele>359.0</ele><time>2026-03-30T21:07:59Z</time></trkpt><trkpt lat="42.16291918317275" lon="-1.1776990710058568"><ele>359.0</ele><time>2026-03-30T21:08:00Z</time></trkpt><trkpt lat="42.16312383300976" lon="-1.177869815949995"><ele>359.0</ele><time>2026-03-30T21:08:01Z</time></trkpt><trkpt lat="42.16332438945671" lon="-1.1780455112826043"><ele>359.0</ele><time>2026-03-30T21:08:02Z</time></trkpt><trkpt lat="42.1635233132153" lon="-1.17822144633541"><ele>359.0</ele><time>2026-03-30T21:08:03Z</time></trkpt><trkpt lat="42.163723123792266" lon="-1.1783947731828606"><ele>359.0</ele><time>2026-03-30T21:08:04Z</time></trkpt><trkpt lat="42.16392092513819" lon="-1.178567943912817"><ele>359.0</ele><time>2026-03-30T21:08:05Z</time></trkpt><trkpt lat="42.16411726347833" lon="-1.1787378319738298"><ele>359.0</ele><time>2026-03-30T21:08:06Z</time></trkpt><trkpt lat="42.16431020220609" lon="-1.1789035117688662"><ele>359.0</ele><time>2026-03-30T21:08:07Z</time></trkpt><trkpt lat="42.16450111004202" lon="-1.1790654571842025"><ele>360.0</ele><time>2026-03-30T21:08:08Z</time></trkpt><trkpt lat="42.16468480871995" lon="-1.1792280306234717"><ele>361.0</ele><time>2026-03-30T21:08:09Z</time></trkpt><trkpt lat="42.16487421366092" lon="-1.179389053813076"><ele>362.0</ele><time>2026-03-30T21:08:10Z</time></trkpt><trkpt lat="42.16506535173469" lon="-1.179556259657433"><ele>362.0</ele><time>2026-03-30T21:08:11Z</time></trkpt><trkpt lat="42.16525648782352" lon="-1.1797262441455598"><ele>362.0</ele><time>2026-03-30T21:08:12Z</time></trkpt><trkpt lat="42.16545199696329" lon="-1.1798942882025847"><ele>362.0</ele><time>2026-03-30T21:08:13Z</time></trkpt><trkpt lat="42.165644958193894" lon="-1.1800626922297008"><ele>362.0</ele><time>2026-03-30T21:08:14Z</time></trkpt><trkpt lat="42.16584040422879" lon="-1.1802290397896933"><ele>363.0</ele><time>2026-03-30T21:08:15Z</time></trkpt><trkpt lat="42.16603490230461" lon="-1.1803957141221357"><ele>364.0</ele><time>2026-03-30T21:08:16Z</time></trkpt><trkpt lat="42.16622853674856" lon="-1.1805677328906905"><ele>364.0</ele><time>2026-03-30T21:08:17Z</time></trkpt><trkpt lat="42.16641895006251" lon="-1.1807309186899124"><ele>364.0</ele><time>2026-03-30T21:08:18Z</time></trkpt><trkpt lat="42.16661774012757" lon="-1.1808981501563443"><ele>364.0</ele><time>2026-03-30T21:08:19Z</time></trkpt><trkpt lat="42.166815864778" lon="-1.1810697859097203"><ele>364.0</ele><time>2026-03-30T21:08:20Z</time></trkpt><trkpt lat="42.167022711504515" lon="-1.181247897837773"><ele>364.0</ele><time>2026-03-30T21:08:21Z</time></trkpt><trkpt lat="42.167222377365306" lon="-1.181428897427398"><ele>364.0</ele><time>2026-03-30T21:08:22Z</time></trkpt><trkpt lat="42.167417562098365" lon="-1.1816042679915013"><ele>365.0</ele><time>2026-03-30T21:08:23Z</time></trkpt><trkpt lat="42.16761401864325" lon="-1.1817719453166537"><ele>366.0</ele><time>2026-03-30T21:08:24Z</time></trkpt><trkpt lat="42.16781055412981" lon="-1.1819390301786776"><ele>366.0</ele><time>2026-03-30T21:08:25Z</time></trkpt><trkpt lat="42.168010314009464" lon="-1.1820979506049984"><ele>366.0</ele><time>2026-03-30T21:08:26Z</time></trkpt><trkpt lat="42.16820127791391" lon="-1.1822734640918693"><ele>365.0</ele><time>2026-03-30T21:08:27Z</time></trkpt><trkpt lat="42.168388624660565" lon="-1.1824484264057156"><ele>364.0</ele><time>2026-03-30T21:08:28Z</time></trkpt><trkpt lat="42.16860847050087" lon="-1.182626301264879"><ele>364.0</ele><time>2026-03-30T21:08:29Z</time></trkpt><trkpt lat="42.168807765756064" lon="-1.1827990446557761"><ele>364.0</ele><time>2026-03-30T21:08:30Z</time></trkpt><trkpt lat="42.16900425934496" lon="-1.1829716137717927"><ele>365.0</ele><time>2026-03-30T21:08:31Z</time></trkpt><trkpt lat="42.16920003075979" lon="-1.183141608322733"><ele>366.0</ele><time>2026-03-30T21:08:32Z</time></trkpt><trkpt lat="42.16938773887306" lon="-1.1832995379300417"><ele>366.3333333333333</ele><time>2026-03-30T21:08:33Z</time></trkpt><trkpt lat="42.16956768991369" lon="-1.183457319567656"><ele>366.66666666666663</ele><time>2026-03-30T21:08:34Z</time></trkpt><trkpt lat="42.16975037884815" lon="-1.1836162493766043"><ele>367.0</ele><time>2026-03-30T21:08:35Z</time></trkpt><trkpt lat="42.16993634505376" lon="-1.1837755302366626"><ele>367.5</ele><time>2026-03-30T21:08:36Z</time></trkpt><trkpt lat="42.17013098359359" lon="-1.1839469797588535"><ele>368.0</ele><time>2026-03-30T21:08:37Z</time></trkpt><trkpt lat="42.17033419774626" lon="-1.184121264256063"><ele>368.0</ele><time>2026-03-30T21:08:38Z</time></trkpt><trkpt lat="42.17053422877582" lon="-1.1842898635664312"><ele>368.0</ele><time>2026-03-30T21:08:39Z</time></trkpt><trkpt lat="42.17072441231487" lon="-1.1844665809620316"><ele>368.5</ele><time>2026-03-30T21:08:40Z</time></trkpt><trkpt lat="42.17091867087852" lon="-1.1846333085089311"><ele>369.0</ele><time>2026-03-30T21:08:41Z</time></trkpt><trkpt lat="42.171111421995725" lon="-1.184804684042789"><ele>369.0</ele><time>2026-03-30T21:08:42Z</time></trkpt><trkpt lat="42.17130725269486" lon="-1.1849812460631597"><ele>369.0</ele><time>2026-03-30T21:08:43Z</time></trkpt><trkpt lat="42.17151114968901" lon="-1.1851493278652614"><ele>368.5</ele><time>2026-03-30T21:08:44Z</time></trkpt><trkpt lat="42.17171383962055" lon="-1.1853187783709869"><ele>368.0</ele><time>2026-03-30T21:08:45Z</time></trkpt><trkpt lat="42.17191495336988" lon="-1.1854914948344206"><ele>368.0</ele><time>2026-03-30T21:08:46Z</time></trkpt><trkpt lat="42.172115918420346" lon="-1.1856640037581054"><ele>368.0</ele><time>2026-03-30T21:08:47Z</time></trkpt><trkpt lat="42.17231728726561" lon="-1.1858379732436448"><ele>370.5</ele><time>2026-03-30T21:08:48Z</time></trkpt><trkpt lat="42.17251598870345" lon="-1.1860123099597324"><ele>373.0</ele><time>2026-03-30T21:08:49Z</time></trkpt><trkpt lat="42.17271039504123" lon="-1.186185223734539"><ele>373.0</ele><time>2026-03-30T21:08:50Z</time></trkpt><trkpt lat="42.172896554130254" lon="-1.1863538027289229"><ele>373.0</ele><time>2026-03-30T21:08:51Z</time></trkpt><trkpt lat="42.17308152586127" lon="-1.186515581705851"><ele>373.0</ele><time>2026-03-30T21:08:52Z</time></trkpt><trkpt lat="42.173242117046556" lon="-1.1866561307681331"><ele>373.3333333333333</ele><time>2026-03-30T21:08:53Z</time></trkpt><trkpt lat="42.17339253540736" lon="-1.1867848835340842"><ele>373.6666666666667</ele><time>2026-03-30T21:08:54Z</time></trkpt><trkpt lat="42.173550318729816" lon="-1.1869177384902307"><ele>374.0</ele><time>2026-03-30T21:08:55Z</time></trkpt><trkpt lat="42.17370518361264" lon="-1.187050988091265"><ele>374.0</ele><time>2026-03-30T21:08:56Z</time></trkpt><trkpt lat="42.173863731232956" lon="-1.1871868534604062"><ele>374.0</ele><time>2026-03-30T21:08:57Z</time></trkpt><trkpt lat="42.17402520064371" lon="-1.1873259733969732"><ele>374.0</ele><time>2026-03-30T21:08:58Z</time></trkpt><trkpt lat="42.17418275437209" lon="-1.187462119897804"><ele>373.75</ele><time>2026-03-30T21:08:59Z</time></trkpt><trkpt lat="42.17433352197358" lon="-1.1875859048767385"><ele>373.5</ele><time>2026-03-30T21:09:00Z</time></trkpt><trkpt lat="42.17446246040266" lon="-1.187675403125291"><ele>373.25</ele><time>2026-03-30T21:09:01Z</time></trkpt><trkpt lat="42.17456636809863" lon="-1.1877541267254443"><ele>373.0</ele><time>2026-03-30T21:09:02Z</time></trkpt><trkpt lat="42.17465232171079" lon="-1.1878186877749113"><ele>373.0</ele><time>2026-03-30T21:09:03Z</time></trkpt><trkpt lat="42.17473171983315" lon="-1.1878299751252968"><ele>373.0</ele><time>2026-03-30T21:09:04Z</time></trkpt><trkpt lat="42.17481779497618" lon="-1.18778284635499"><ele>373.0</ele><time>2026-03-30T21:09:05Z</time></trkpt><trkpt lat="42.17489617468836" lon="-1.1876868862208834"><ele>373.0</ele><time>2026-03-30T21:09:06Z</time></trkpt><trkpt lat="42.174961668395724" lon="-1.1875834386815225"><ele>373.0</ele><time>2026-03-30T21:09:07Z</time></trkpt><trkpt lat="42.17503793939642" lon="-1.1874801315862737"><ele>373.0</ele><time>2026-03-30T21:09:08Z</time></trkpt><trkpt lat="42.17513623054317" lon="-1.187395024671043"><ele>373.0</ele><time>2026-03-30T21:09:09Z</time></trkpt><trkpt lat="42.175247864182374" lon="-1.187326496461989"><ele>373.0</ele><time>2026-03-30T21:09:10Z</time></trkpt><trkpt lat="42.17536969732372" lon="-1.18728006451129"><ele>373.0</ele><time>2026-03-30T21:09:11Z</time></trkpt><trkpt lat="42.17549776383361" lon="-1.1872386299934015"><ele>372.75</ele><time>2026-03-30T21:09:12Z</time></trkpt><trkpt lat="42.17563372497018" lon="-1.1871915808922437"><ele>372.5</ele><time>2026-03-30T21:09:13Z</time></trkpt><trkpt lat="42.17577156852868" lon="-1.1871371463957037"><ele>372.25</ele><time>2026-03-30T21:09:14Z</time></trkpt><trkpt lat="42.175904937915774" lon="-1.1870874420319157"><ele>372.0</ele><time>2026-03-30T21:09:15Z</time></trkpt><trkpt lat="42.176039918921184" lon="-1.1870376045981286"><ele>372.0</ele><time>2026-03-30T21:09:16Z</time></trkpt><trkpt lat="42.17617930075617" lon="-1.18699315358977"><ele>372.0</ele><time>2026-03-30T21:09:17Z</time></trkpt><trkpt lat="42.17632449714728" lon="-1.186946651885262"><ele>372.0</ele><time>2026-03-30T21:09:18Z</time></trkpt><trkpt lat="42.1764701474056" lon="-1.1868960984921773"><ele>372.0</ele><time>2026-03-30T21:09:19Z</time></trkpt><trkpt lat="42.176627591678574" lon="-1.1868534645499162"><ele>373.0</ele><time>2026-03-30T21:09:20Z</time></trkpt><trkpt lat="42.17678614142575" lon="-1.1868171980066986"><ele>374.0</ele><time>2026-03-30T21:09:21Z</time></trkpt><trkpt lat="42.17694516165392" lon="-1.1867868359006735"><ele>375.0</ele><time>2026-03-30T21:09:22Z</time></trkpt><trkpt lat="42.1771048271172" lon="-1.1867727874648617"><ele>375.0</ele><time>2026-03-30T21:09:23Z</time></trkpt><trkpt lat="42.17727100331359" lon="-1.1867682768799421"><ele>375.0</ele><time>2026-03-30T21:09:24Z</time></trkpt><trkpt lat="42.17743281579851" lon="-1.1867654695782808"><ele>375.0</ele><time>2026-03-30T21:09:25Z</time></trkpt><trkpt lat="42.177574739584806" lon="-1.186758711055173"><ele>375.2</ele><time>2026-03-30T21:09:26Z</time></trkpt><trkpt lat="42.17769530671157" lon="-1.1867496980338073"><ele>375.4</ele><time>2026-03-30T21:09:27Z</time></trkpt><trkpt lat="42.17780125632404" lon="-1.1867419881656818"><ele>375.6</ele><time>2026-03-30T21:09:28Z</time></trkpt><trkpt lat="42.17789839976655" lon="-1.1867409482802351"><ele>375.8</ele><time>2026-03-30T21:09:29Z</time></trkpt><trkpt lat="42.17798378359215" lon="-1.1867419744143206"><ele>376.0</ele><time>2026-03-30T21:09:30Z</time></trkpt><trkpt lat="42.17805501008404" lon="-1.1867354587126777"><ele>376.0</ele><time>2026-03-30T21:09:31Z</time></trkpt><trkpt lat="42.17813465365369" lon="-1.1866448290756033"><ele>376.0</ele><time>2026-03-30T21:09:33Z</time></trkpt><trkpt lat="42.17811767177891" lon="-1.1865104176902104"><ele>376.0</ele><time>2026-03-30T21:09:35Z</time></trkpt><trkpt lat="42.17801009410786" lon="-1.186395808090726"><ele>376.0</ele><time>2026-03-30T21:09:37Z</time></trkpt><trkpt lat="42.17793190544494" lon="-1.1863141528414045"><ele>376.0</ele><time>2026-03-30T21:09:38Z</time></trkpt><trkpt lat="42.17784129869868" lon="-1.186219922244892"><ele>376.8</ele><time>2026-03-30T21:09:39Z</time></trkpt><trkpt lat="42.17774423841187" lon="-1.1861209769178656"><ele>377.6</ele><time>2026-03-30T21:09:40Z</time></trkpt><trkpt lat="42.1776561585025" lon="-1.186019577403459"><ele>378.4</ele><time>2026-03-30T21:09:41Z</time></trkpt><trkpt lat="42.17757882631903" lon="-1.185943051353195"><ele>379.2</ele><time>2026-03-30T21:09:42Z</time></trkpt><trkpt lat="42.17749921837368" lon="-1.1858569845922935"><ele>380.0</ele><time>2026-03-30T21:09:43Z</time></trkpt><trkpt lat="42.17743527230945" lon="-1.1857832251156186"><ele>380.0</ele><time>2026-03-30T21:09:44Z</time></trkpt><trkpt lat="42.17738649011634" lon="-1.185713852927121"><ele>380.0</ele><time>2026-03-30T21:09:45Z</time></trkpt><trkpt lat="42.177347605041405" lon="-1.1856380582967279"><ele>380.0</ele><time>2026-03-30T21:09:46Z</time></trkpt><trkpt lat="42.17734374398102" lon="-1.185474836807872"><ele>380.0</ele><time>2026-03-30T21:09:48Z</time></trkpt><trkpt lat="42.17737453657748" lon="-1.1853889046123374"><ele>380.0</ele><time>2026-03-30T21:09:49Z</time></trkpt><trkpt lat="42.17742301527512" lon="-1.1853128881889494"><ele>380.0</ele><time>2026-03-30T21:09:50Z</time></trkpt><trkpt lat="42.17748163942929" lon="-1.1852773624546817"><ele>380.5</ele><time>2026-03-30T21:09:51Z</time></trkpt><trkpt lat="42.177545296766226" lon="-1.1852465055133183"><ele>381.0</ele><time>2026-03-30T21:09:52Z</time></trkpt><trkpt lat="42.17762635932518" lon="-1.1852233535719625"><ele>381.5</ele><time>2026-03-30T21:09:53Z</time></trkpt><trkpt lat="42.17771455470573" lon="-1.1852108387876952"><ele>382.0</ele><time>2026-03-30T21:09:54Z</time></trkpt><trkpt lat="42.17781853847379" lon="-1.1852206882473337"><ele>382.5</ele><time>2026-03-30T21:09:55Z</time></trkpt><trkpt lat="42.17792361178701" lon="-1.1852038398591744"><ele>383.0</ele><time>2026-03-30T21:09:56Z</time></trkpt><trkpt lat="42.178028178072054" lon="-1.1851930761065155"><ele>383.0</ele><time>2026-03-30T21:09:57Z</time></trkpt><trkpt lat="42.17813153615071" lon="-1.1851978576642999"><ele>383.0</ele><time>2026-03-30T21:09:58Z</time></trkpt><trkpt lat="42.17822897083176" lon="-1.1851939450669369"><ele>383.0</ele><time>2026-03-30T21:09:59Z</time></trkpt><trkpt lat="42.17831407143167" lon="-1.1851858966205087"><ele>383.0</ele><time>2026-03-30T21:10:00Z</time></trkpt><trkpt lat="42.1783833764202" lon="-1.185183628216935"><ele>383.0</ele><time>2026-03-30T21:10:01Z</time></trkpt><trkpt lat="42.17846160662715" lon="-1.1851176406998098"><ele>383.0</ele><time>2026-03-30T21:10:03Z</time></trkpt><trkpt lat="42.17842727990352" lon="-1.1850220088912773"><ele>382.79999999999995</ele><time>2026-03-30T21:10:05Z</time></trkpt><trkpt lat="42.17832675801382" lon="-1.1849511059533269"><ele>382.6</ele><time>2026-03-30T21:10:07Z</time></trkpt><trkpt lat="42.178239130862025" lon="-1.18490743963376"><ele>382.4</ele><time>2026-03-30T21:10:08Z</time></trkpt><trkpt lat="42.17815885694384" lon="-1.184842742495307"><ele>382.20000000000005</ele><time>2026-03-30T21:10:09Z</time></trkpt><trkpt lat="42.178083228635906" lon="-1.1847404938951054"><ele>382.0</ele><time>2026-03-30T21:10:10Z</time></trkpt><trkpt lat="42.17801330331394" lon="-1.1846343804146073"><ele>381.8</ele><time>2026-03-30T21:10:11Z</time></trkpt><trkpt lat="42.17793447535652" lon="-1.1845119890196731"><ele>381.6</ele><time>2026-03-30T21:10:12Z</time></trkpt><trkpt lat="42.17785058605371" lon="-1.184398797053065"><ele>381.40000000000003</ele><time>2026-03-30T21:10:13Z</time></trkpt><trkpt lat="42.17777218344863" lon="-1.1843051677551835"><ele>381.20000000000005</ele><time>2026-03-30T21:10:14Z</time></trkpt><trkpt lat="42.1776982878431" lon="-1.1842202737541507"><ele>381.0</ele><time>2026-03-30T21:10:15Z</time></trkpt><trkpt lat="42.17762010958645" lon="-1.1841447004200087"><ele>381.0</ele><time>2026-03-30T21:10:16Z</time></trkpt><trkpt lat="42.17754016121561" lon="-1.1840963144535088"><ele>381.0</ele><time>2026-03-30T21:10:17Z</time></trkpt><trkpt lat="42.17746748806604" lon="-1.1840849025378815"><ele>381.0</ele><time>2026-03-30T21:10:18Z</time></trkpt><trkpt lat="42.17739993351734" lon="-1.184051385703566"><ele>381.0</ele><time>2026-03-30T21:10:19Z</time></trkpt><trkpt lat="42.17733217800747" lon="-1.1839165493359463"><ele>381.0</ele><time>2026-03-30T21:10:21Z</time></trkpt><trkpt lat="42.17729217054922" lon="-1.1837809848034835"><ele>380.8333333333333</ele><time>2026-03-30T21:10:23Z</time></trkpt><trkpt lat="42.17721805711143" lon="-1.18372179719878"><ele>380.6666666666667</ele><time>2026-03-30T21:10:25Z</time></trkpt><trkpt lat="42.17715193962498" lon="-1.1837297239555036"><ele>380.5</ele><time>2026-03-30T21:10:27Z</time></trkpt><trkpt lat="42.17710019321756" lon="-1.1838123719076743"><ele>380.33333333333337</ele><time>2026-03-30T21:10:29Z</time></trkpt><trkpt lat="42.17707243254642" lon="-1.183932508667789"><ele>380.1666666666667</ele><time>2026-03-30T21:10:31Z</time></trkpt><trkpt lat="42.17705806681855" lon="-1.1840327576602838"><ele>380.0</ele><time>2026-03-30T21:10:33Z</time></trkpt><trkpt lat="42.177055750759685" lon="-1.184130559111767"><ele>380.0</ele><time>2026-03-30T21:10:36Z</time></trkpt><trkpt lat="42.176899279585406" lon="-1.1841055279712844"><ele>380.0</ele><time>2026-03-30T21:10:41Z</time></trkpt><trkpt lat="42.176840532457405" lon="-1.1840389162414713"><ele>380.0</ele><time>2026-03-30T21:10:43Z</time></trkpt><trkpt lat="42.17678176431916" lon="-1.1839291814481714"><ele>380.0</ele><time>2026-03-30T21:10:45Z</time></trkpt><trkpt lat="42.176751063246066" lon="-1.1838307182055416"><ele>380.0</ele><time>2026-03-30T21:10:47Z</time></trkpt><trkpt lat="42.17672538023113" lon="-1.183735836429132"><ele>379.0</ele><time>2026-03-30T21:10:50Z</time></trkpt><trkpt lat="42.17670155425415" lon="-1.183647815189112"><ele>379.0</ele><time>2026-03-30T21:10:58Z</time></trkpt><trkpt lat="42.17679048323201" lon="-1.183548018582512"><ele>379.0</ele><time>2026-03-30T21:12:15Z</time></trkpt><trkpt lat="42.17685401074702" lon="-1.183551293437354"><ele>379.0</ele><time>2026-03-30T21:12:26Z</time></trkpt><trkpt lat="42.176908731201635" lon="-1.1835982318933482"><ele>379.0</ele><time>2026-03-30T21:14:08Z</time></trkpt></trkseg><trkseg><trkpt lat="42.176847851195745" lon="-1.1835791360924288"><ele>379.0</ele><time>2026-03-30T21:50:14Z</time></trkpt><trkpt lat="42.176959937452054" lon="-1.1835757972233407"><ele>379.0</ele><time>2026-03-31T04:53:38Z</time></trkpt><trkpt lat="42.17686314833354" lon="-1.1835918713316498"><ele>379.0</ele><time>2026-03-31T05:06:11Z</time></trkpt><trkpt lat="42.17690433514564" lon="-1.1835224369363158"><ele>379.0</ele><time>2026-03-31T06:46:31Z</time></trkpt><trkpt lat="42.17684846907185" lon="-1.183564273366679"><ele>379.0</ele><time>2026-03-31T06:48:28Z</time></trkpt><trkpt lat="42.17692651090712" lon="-1.183580330606777"><ele>379.0</ele><time>2026-03-31T07:27:51Z</time></trkpt><trkpt lat="42.17685529186969" lon="-1.1835399214964768"><ele>379.00000000000006</ele><time>2026-03-31T07:28:11Z</time></trkpt><trkpt lat="42.17679753304565" lon="-1.1835792208382283"><ele>379.0</ele><time>2026-03-31T07:28:20Z</time></trkpt><trkpt lat="42.176736470230196" lon="-1.1836194993287767"><ele>379.0</ele><time>2026-03-31T07:29:37Z</time></trkpt><trkpt lat="42.176780476132194" lon="-1.1835488940532888"><ele>379.0</ele><time>2026-03-31T07:32:08Z</time></trkpt><trkpt lat="42.17684944050806" lon="-1.183571548261963"><ele>379.0</ele><time>2026-03-31T07:32:36Z</time></trkpt><trkpt lat="42.176776783945485" lon="-1.1835376947448297"><ele>379.00000000000006</ele><time>2026-03-31T08:04:25Z</time></trkpt><trkpt lat="42.176729623547345" lon="-1.1836009661435047"><ele>379.0</ele><time>2026-03-31T08:04:32Z</time></trkpt><trkpt lat="42.176774439322365" lon="-1.1836872743789262"><ele>379.0</ele><time>2026-03-31T08:05:28Z</time></trkpt><trkpt lat="42.17678593356864" lon="-1.183779036355855"><ele>379.0</ele><time>2026-03-31T08:05:30Z</time></trkpt><trkpt lat="42.1768098412482" lon="-1.1838880691726648"><ele>379.0</ele><time>2026-03-31T08:05:32Z</time></trkpt><trkpt lat="42.17684433223197" lon="-1.1839892235173255"><ele>379.0</ele><time>2026-03-31T08:05:34Z</time></trkpt><trkpt lat="42.17688647448683" lon="-1.1840666609290522"><ele>379.0</ele><time>2026-03-31T08:05:36Z</time></trkpt><trkpt lat="42.17693746593198" lon="-1.1841387029993142"><ele>379.0</ele><time>2026-03-31T08:05:38Z</time></trkpt><trkpt lat="42.17700771583584" lon="-1.1841073687782755"><ele>379.0</ele><time>2026-03-31T08:05:41Z</time></trkpt><trkpt lat="42.17705101590384" lon="-1.1840274170174045"><ele>379.0</ele><time>2026-03-31T08:05:44Z</time></trkpt><trkpt lat="42.17706270580949" lon="-1.1839326218560204"><ele>379.0</ele><time>2026-03-31T08:05:46Z</time></trkpt><trkpt lat="42.177091724725194" lon="-1.1838117485736104"><ele>379.0</ele><time>2026-03-31T08:05:48Z</time></trkpt><trkpt lat="42.17713986456643" lon="-1.1837093443777114"><ele>379.0</ele><time>2026-03-31T08:05:50Z</time></trkpt><trkpt lat="42.17716393544219" lon="-1.1836254347702113"><ele>379.0</ele><time>2026-03-31T08:05:53Z</time></trkpt><trkpt lat="42.177150386602555" lon="-1.1835244644652487"><ele>379.0</ele><time>2026-03-31T08:05:55Z</time></trkpt><trkpt lat="42.17715394550894" lon="-1.1834286376706038"><ele>379.0</ele><time>2026-03-31T08:05:58Z</time></trkpt><trkpt lat="42.17722044859944" lon="-1.1834175596317003"><ele>379.0</ele><time>2026-03-31T08:07:11Z</time></trkpt><trkpt lat="42.17727011298382" lon="-1.1835516992880337"><ele>379.0</ele><time>2026-03-31T08:07:14Z</time></trkpt><trkpt lat="42.177339710023055" lon="-1.1836284286800682"><ele>379.0</ele><time>2026-03-31T08:07:16Z</time></trkpt><trkpt lat="42.17731590426298" lon="-1.1837406827429393"><ele>379.0</ele><time>2026-03-31T08:07:18Z</time></trkpt><trkpt lat="42.1772105234338" lon="-1.1837428512300532"><ele>379.0</ele><time>2026-03-31T08:07:20Z</time></trkpt><trkpt lat="42.17715730380684" lon="-1.1836293646298421"><ele>379.0</ele><time>2026-03-31T08:07:22Z</time></trkpt><trkpt lat="42.17719320859661" lon="-1.183520232323088"><ele>379.0</ele><time>2026-03-31T08:07:24Z</time></trkpt><trkpt lat="42.177266405889824" lon="-1.1835316875141821"><ele>379.0</ele><time>2026-03-31T08:07:26Z</time></trkpt><trkpt lat="42.17733471914926" lon="-1.1836090429333805"><ele>379.0</ele><time>2026-03-31T08:08:12Z</time></trkpt><trkpt lat="42.17731992229026" lon="-1.1837157172474233"><ele>379.0</ele><time>2026-03-31T08:08:14Z</time></trkpt><trkpt lat="42.17723193535978" lon="-1.1837475241160793"><ele>379.0</ele><time>2026-03-31T08:08:16Z</time></trkpt><trkpt lat="42.17716499263657" lon="-1.18364328508012"><ele>379.0</ele><time>2026-03-31T08:08:18Z</time></trkpt><trkpt lat="42.17717252066432" lon="-1.1835352046117795"><ele>379.0</ele><time>2026-03-31T08:08:20Z</time></trkpt><trkpt lat="42.17724447071457" lon="-1.1834799509727938"><ele>379.0</ele><time>2026-03-31T08:08:22Z</time></trkpt><trkpt lat="42.177325589671945" lon="-1.1835188630691662"><ele>379.0</ele><time>2026-03-31T08:08:24Z</time></trkpt><trkpt lat="42.177339059252176" lon="-1.1836346070588883"><ele>379.0</ele><time>2026-03-31T08:08:26Z</time></trkpt><trkpt lat="42.177264297325664" lon="-1.1837166165761943"><ele>379.0</ele><time>2026-03-31T08:08:28Z</time></trkpt><trkpt lat="42.177182081080254" lon="-1.1836574624925529"><ele>379.0</ele><time>2026-03-31T08:08:30Z</time></trkpt><trkpt lat="42.177183757111756" lon="-1.1835364998763616"><ele>379.0</ele><time>2026-03-31T08:08:32Z</time></trkpt><trkpt lat="42.17726740830337" lon="-1.1834775360543643"><ele>379.0</ele><time>2026-03-31T08:08:34Z</time></trkpt><trkpt lat="42.17734847621587" lon="-1.1835331523155117"><ele>379.0</ele><time>2026-03-31T08:08:36Z</time></trkpt><trkpt lat="42.17735826774985" lon="-1.1836437896288372"><ele>379.0</ele><time>2026-03-31T08:08:38Z</time></trkpt><trkpt lat="42.177284894879136" lon="-1.18370988528343"><ele>379.0</ele><time>2026-03-31T08:08:40Z</time></trkpt><trkpt lat="42.17719816071726" lon="-1.1836699191431235"><ele>379.0</ele><time>2026-03-31T08:08:42Z</time></trkpt><trkpt lat="42.17718767366135" lon="-1.183545192269452"><ele>379.0</ele><time>2026-03-31T08:08:44Z</time></trkpt><trkpt lat="42.177260377837484" lon="-1.1834909174428043"><ele>379.0</ele><time>2026-03-31T08:08:46Z</time></trkpt><trkpt lat="42.177330377981555" lon="-1.1835176821728852"><ele>379.0</ele><time>2026-03-31T08:08:49Z</time></trkpt><trkpt lat="42.177359467442734" lon="-1.1836299719399295"><ele>379.0</ele><time>2026-03-31T08:08:52Z</time></trkpt><trkpt lat="42.17732744207411" lon="-1.1837283360962316"><ele>379.0</ele><time>2026-03-31T08:08:55Z</time></trkpt><trkpt lat="42.177250980184446" lon="-1.1837658071836763"><ele>379.0</ele><time>2026-03-31T08:08:58Z</time></trkpt><trkpt lat="42.17720739438289" lon="-1.1836629061809012"><ele>379.0</ele><time>2026-03-31T08:09:00Z</time></trkpt><trkpt lat="42.177235978894814" lon="-1.1835646254500463"><ele>379.0</ele><time>2026-03-31T08:09:02Z</time></trkpt><trkpt lat="42.17731493878807" lon="-1.183562997689253"><ele>379.0</ele><time>2026-03-31T08:09:04Z</time></trkpt><trkpt lat="42.177349010405685" lon="-1.1836565380295747"><ele>379.0</ele><time>2026-03-31T08:09:06Z</time></trkpt><trkpt lat="42.1773012654736" lon="-1.1837586772908395"><ele>379.0</ele><time>2026-03-31T08:09:08Z</time></trkpt><trkpt lat="42.17732338204606" lon="-1.1838538836447003"><ele>379.0</ele><time>2026-03-31T08:09:10Z</time></trkpt><trkpt lat="42.17736495929622" lon="-1.1839689686460837"><ele>379.0</ele><time>2026-03-31T08:09:12Z</time></trkpt><trkpt lat="42.17744117491001" lon="-1.1840514449927615"><ele>379.0</ele><time>2026-03-31T08:09:14Z</time></trkpt><trkpt lat="42.177554687154384" lon="-1.1840974496428953"><ele>379.3333333333333</ele><time>2026-03-31T08:09:16Z</time></trkpt><trkpt lat="42.1776223840832" lon="-1.1841098367466922"><ele>379.66666666666663</ele><time>2026-03-31T08:09:17Z</time></trkpt><trkpt lat="42.17767412456661" lon="-1.184180530201867"><ele>380.0</ele><time>2026-03-31T08:09:18Z</time></trkpt><trkpt lat="42.17776555929106" lon="-1.1842798497501161"><ele>380.3333333333333</ele><time>2026-03-31T08:09:20Z</time></trkpt><trkpt lat="42.17781367356272" lon="-1.1843350473213323"><ele>380.6666666666667</ele><time>2026-03-31T08:09:21Z</time></trkpt><trkpt lat="42.17790861417707" lon="-1.1844149362750884"><ele>381.0</ele><time>2026-03-31T08:09:23Z</time></trkpt><trkpt lat="42.1779774399445" lon="-1.1844950136349088"><ele>381.0</ele><time>2026-03-31T08:09:25Z</time></trkpt><trkpt lat="42.17805602300798" lon="-1.1845452093712128"><ele>381.0</ele><time>2026-03-31T08:09:27Z</time></trkpt><trkpt lat="42.178069908553866" lon="-1.1847503649604532"><ele>381.0</ele><time>2026-03-31T08:09:33Z</time></trkpt><trkpt lat="42.17801077501202" lon="-1.1845834768891612"><ele>381.0</ele><time>2026-03-31T08:09:34Z</time></trkpt><trkpt lat="42.177956874420126" lon="-1.1844846831531106"><ele>381.0</ele><time>2026-03-31T08:09:37Z</time></trkpt><trkpt lat="42.177899312938145" lon="-1.1844367914209137"><ele>381.0</ele><time>2026-03-31T08:09:39Z</time></trkpt><trkpt lat="42.17783418179431" lon="-1.1843901345909895"><ele>381.0</ele><time>2026-03-31T08:09:42Z</time></trkpt><trkpt lat="42.17789830977783" lon="-1.1844515428588842"><ele>381.0</ele><time>2026-03-31T08:09:49Z</time></trkpt><trkpt lat="42.17796111606019" lon="-1.1844948701371467"><ele>381.0</ele><time>2026-03-31T08:09:51Z</time></trkpt><trkpt lat="42.178025529683474" lon="-1.1845445024036698"><ele>381.0</ele><time>2026-03-31T08:09:54Z</time></trkpt><trkpt lat="42.17794126488797" lon="-1.1845194227403062"><ele>381.0</ele><time>2026-03-31T08:09:57Z</time></trkpt><trkpt lat="42.177917652186736" lon="-1.1844232727172328"><ele>381.0</ele><time>2026-03-31T08:10:00Z</time></trkpt><trkpt lat="42.177986465877936" lon="-1.1844013092474852"><ele>381.0</ele><time>2026-03-31T08:10:02Z</time></trkpt><trkpt lat="42.178026500607395" lon="-1.1845036757926297"><ele>381.0</ele><time>2026-03-31T08:10:04Z</time></trkpt><trkpt lat="42.17804286080031" lon="-1.184596691993058"><ele>381.0</ele><time>2026-03-31T08:10:09Z</time></trkpt><trkpt lat="42.17811210787618" lon="-1.184538296096063"><ele>381.0</ele><time>2026-03-31T08:10:11Z</time></trkpt><trkpt lat="42.17817608284881" lon="-1.1845501102889187"><ele>381.0</ele><time>2026-03-31T08:10:25Z</time></trkpt><trkpt lat="42.17824533350435" lon="-1.1845372331579758"><ele>380.1666666666667</ele><time>2026-03-31T08:10:27Z</time></trkpt><trkpt lat="42.17830830990841" lon="-1.1844898189525639"><ele>379.3333333333333</ele><time>2026-03-31T08:10:28Z</time></trkpt><trkpt lat="42.17837902669179" lon="-1.1844444878104308"><ele>378.5</ele><time>2026-03-31T08:10:30Z</time></trkpt><trkpt lat="42.17846701007697" lon="-1.1844175228937093"><ele>377.66666666666663</ele><time>2026-03-31T08:10:32Z</time></trkpt><trkpt lat="42.178538676070744" lon="-1.1843885185064447"><ele>376.8333333333333</ele><time>2026-03-31T08:10:34Z</time></trkpt><trkpt lat="42.17863072595085" lon="-1.1844040480701985"><ele>376.0</ele><time>2026-03-31T08:10:37Z</time></trkpt><trkpt lat="42.17872544994585" lon="-1.184429064206852"><ele>376.0</ele><time>2026-03-31T08:10:39Z</time></trkpt><trkpt lat="42.17883254088607" lon="-1.1844767845773114"><ele>376.0</ele><time>2026-03-31T08:10:41Z</time></trkpt><trkpt lat="42.178899475265" lon="-1.1845131310644323"><ele>376.0</ele><time>2026-03-31T08:10:42Z</time></trkpt><trkpt lat="42.178969640886834" lon="-1.1845586966300705"><ele>376.0</ele><time>2026-03-31T08:10:43Z</time></trkpt><trkpt lat="42.17903770957531" lon="-1.184611438049457"><ele>376.0</ele><time>2026-03-31T08:10:44Z</time></trkpt><trkpt lat="42.1791083074848" lon="-1.1846522222695464"><ele>376.0</ele><time>2026-03-31T08:10:45Z</time></trkpt><trkpt lat="42.179162701549586" lon="-1.1847379557510407"><ele>376.3333333333333</ele><time>2026-03-31T08:10:46Z</time></trkpt><trkpt lat="42.17921458026979" lon="-1.1848116190693196"><ele>376.66666666666663</ele><time>2026-03-31T08:10:47Z</time></trkpt><trkpt lat="42.179254411313714" lon="-1.18489724041953"><ele>377.0</ele><time>2026-03-31T08:10:48Z</time></trkpt><trkpt lat="42.179294512950015" lon="-1.1849913037762254"><ele>377.3333333333333</ele><time>2026-03-31T08:10:49Z</time></trkpt><trkpt lat="42.17929172469135" lon="-1.1851021263161183"><ele>377.6666666666667</ele><time>2026-03-31T08:10:50Z</time></trkpt><trkpt lat="42.179272588817106" lon="-1.185209836422985"><ele>378.0</ele><time>2026-03-31T08:10:51Z</time></trkpt><trkpt lat="42.17924755690379" lon="-1.1853154216512525"><ele>378.0</ele><time>2026-03-31T08:10:52Z</time></trkpt><trkpt lat="42.179209374039715" lon="-1.1854121526537476"><ele>378.0</ele><time>2026-03-31T08:10:53Z</time></trkpt><trkpt lat="42.17915694693397" lon="-1.1854903458321302"><ele>378.0</ele><time>2026-03-31T08:10:54Z</time></trkpt><trkpt lat="42.17909518887626" lon="-1.1855622053832597"><ele>378.0</ele><time>2026-03-31T08:10:55Z</time></trkpt><trkpt lat="42.17902280700094" lon="-1.1856157723500422"><ele>378.0</ele><time>2026-03-31T08:10:56Z</time></trkpt><trkpt lat="42.178949480903526" lon="-1.1856526470268094"><ele>378.0</ele><time>2026-03-31T08:10:57Z</time></trkpt><trkpt lat="42.17886518693021" lon="-1.185701581276397"><ele>378.8333333333333</ele><time>2026-03-31T08:10:58Z</time></trkpt><trkpt lat="42.17878608726356" lon="-1.1857535756234083"><ele>379.6666666666667</ele><time>2026-03-31T08:10:59Z</time></trkpt><trkpt lat="42.17870813306831" lon="-1.1858087934368995"><ele>380.5</ele><time>2026-03-31T08:11:00Z</time></trkpt><trkpt lat="42.178638203827745" lon="-1.185884349739478"><ele>381.33333333333337</ele><time>2026-03-31T08:11:01Z</time></trkpt><trkpt lat="42.178570696475674" lon="-1.1859672293771508"><ele>382.1666666666667</ele><time>2026-03-31T08:11:02Z</time></trkpt><trkpt lat="42.178509903297716" lon="-1.1860587773567812"><ele>383.0</ele><time>2026-03-31T08:11:03Z</time></trkpt><trkpt lat="42.178448803574184" lon="-1.1861519825173674"><ele>383.0</ele><time>2026-03-31T08:11:04Z</time></trkpt><trkpt lat="42.1783859962524" lon="-1.1862430034126565"><ele>383.0</ele><time>2026-03-31T08:11:05Z</time></trkpt><trkpt lat="42.178327450904035" lon="-1.1863266354869049"><ele>383.0</ele><time>2026-03-31T08:11:06Z</time></trkpt><trkpt lat="42.17826913839728" lon="-1.1864095401164094"><ele>383.0</ele><time>2026-03-31T08:11:07Z</time></trkpt><trkpt lat="42.17821882639553" lon="-1.1864931740788618"><ele>383.0</ele><time>2026-03-31T08:11:08Z</time></trkpt><trkpt lat="42.17819369659657" lon="-1.1865784004903794"><ele>383.0</ele><time>2026-03-31T08:11:09Z</time></trkpt><trkpt lat="42.1781501859983" lon="-1.1866719634784322"><ele>381.59999999999997</ele><time>2026-03-31T08:11:11Z</time></trkpt><trkpt lat="42.17814432401112" lon="-1.1867599343594761"><ele>380.2</ele><time>2026-03-31T08:11:15Z</time></trkpt><trkpt lat="42.17797673016358" lon="-1.186790184320247"><ele>378.8</ele><time>2026-03-31T08:11:16Z</time></trkpt><trkpt lat="42.177882542260875" lon="-1.1867954012091246"><ele>377.4</ele><time>2026-03-31T08:11:17Z</time></trkpt><trkpt lat="42.17777657825706" lon="-1.1867993489971425"><ele>376.0</ele><time>2026-03-31T08:11:18Z</time></trkpt><trkpt lat="42.17766292951595" lon="-1.1868036256268593"><ele>376.0</ele><time>2026-03-31T08:11:19Z</time></trkpt><trkpt lat="42.17752925352726" lon="-1.1868086558861728"><ele>376.0</ele><time>2026-03-31T08:11:20Z</time></trkpt><trkpt lat="42.17738609233469" lon="-1.18681404307552"><ele>376.0</ele><time>2026-03-31T08:11:21Z</time></trkpt><trkpt lat="42.17724031996987" lon="-1.1868195659576735"><ele>376.0</ele><time>2026-03-31T08:11:22Z</time></trkpt><trkpt lat="42.177090656779356" lon="-1.1868300654377228"><ele>375.66666666666663</ele><time>2026-03-31T08:11:23Z</time></trkpt><trkpt lat="42.176938385506425" lon="-1.1868498909491485"><ele>375.3333333333333</ele><time>2026-03-31T08:11:24Z</time></trkpt><trkpt lat="42.176781624401684" lon="-1.1868766677231262"><ele>375.0</ele><time>2026-03-31T08:11:25Z</time></trkpt><trkpt lat="42.176628188785706" lon="-1.1869067369271693"><ele>374.0</ele><time>2026-03-31T08:11:26Z</time></trkpt><trkpt lat="42.17647429428904" lon="-1.1869480481188546"><ele>373.0</ele><time>2026-03-31T08:11:27Z</time></trkpt><trkpt lat="42.17632368474712" lon="-1.1869954807700833"><ele>372.0</ele><time>2026-03-31T08:11:28Z</time></trkpt><trkpt lat="42.17617461480233" lon="-1.1870457853465868"><ele>372.0</ele><time>2026-03-31T08:11:29Z</time></trkpt><trkpt lat="42.176026852237015" lon="-1.187095648740269"><ele>372.0</ele><time>2026-03-31T08:11:30Z</time></trkpt><trkpt lat="42.17587402402597" lon="-1.1871483571682855"><ele>372.0</ele><time>2026-03-31T08:11:31Z</time></trkpt><trkpt lat="42.17572273976439" lon="-1.1872037812281933"><ele>372.0</ele><time>2026-03-31T08:11:32Z</time></trkpt><trkpt lat="42.17557735104666" lon="-1.1872585035774565"><ele>372.0</ele><time>2026-03-31T08:11:33Z</time></trkpt><trkpt lat="42.17543756457008" lon="-1.1873111469000768"><ele>372.0</ele><time>2026-03-31T08:11:34Z</time></trkpt><trkpt lat="42.17530381640764" lon="-1.1873650425911197"><ele>372.0</ele><time>2026-03-31T08:11:35Z</time></trkpt><trkpt lat="42.17517128860288" lon="-1.1874101908964227"><ele>372.25</ele><time>2026-03-31T08:11:36Z</time></trkpt><trkpt lat="42.175052451168185" lon="-1.1874941667291903"><ele>372.5</ele><time>2026-03-31T08:11:37Z</time></trkpt><trkpt lat="42.174958161112016" lon="-1.1876192035883797"><ele>372.75</ele><time>2026-03-31T08:11:38Z</time></trkpt><trkpt lat="42.174872114956514" lon="-1.1877137837832281"><ele>373.0</ele><time>2026-03-31T08:11:39Z</time></trkpt><trkpt lat="42.17482055007903" lon="-1.187812679280899"><ele>373.0</ele><time>2026-03-31T08:11:40Z</time></trkpt><trkpt lat="42.17477747096292" lon="-1.1879004265968551"><ele>373.0</ele><time>2026-03-31T08:11:42Z</time></trkpt><trkpt lat="42.174864709128194" lon="-1.1880557827289628"><ele>373.0</ele><time>2026-03-31T08:11:43Z</time></trkpt><trkpt lat="42.174932564974995" lon="-1.1881191909443487"><ele>373.0</ele><time>2026-03-31T08:11:44Z</time></trkpt><trkpt lat="42.175025811646876" lon="-1.188188432828616"><ele>373.0</ele><time>2026-03-31T08:11:45Z</time></trkpt><trkpt lat="42.17513321796433" lon="-1.188273754143438"><ele>373.25</ele><time>2026-03-31T08:11:46Z</time></trkpt><trkpt lat="42.17524512348289" lon="-1.1883657453951797"><ele>373.5</ele><time>2026-03-31T08:11:47Z</time></trkpt><trkpt lat="42.17537893139131" lon="-1.1884824514718988"><ele>373.75</ele><time>2026-03-31T08:11:48Z</time></trkpt><trkpt lat="42.17550440020612" lon="-1.1885908414616206"><ele>374.0</ele><time>2026-03-31T08:11:49Z</time></trkpt><trkpt lat="42.17563057871174" lon="-1.1886984321994727"><ele>374.0</ele><time>2026-03-31T08:11:50Z</time></trkpt><trkpt lat="42.175759365745826" lon="-1.1888136526555315"><ele>374.0</ele><time>2026-03-31T08:11:51Z</time></trkpt><trkpt lat="42.17589128162684" lon="-1.1889317014084095"><ele>374.0</ele><time>2026-03-31T08:11:52Z</time></trkpt><trkpt lat="42.176027840506926" lon="-1.1890523652649883"><ele>374.6666666666667</ele><time>2026-03-31T08:11:53Z</time></trkpt><trkpt lat="42.176166589312615" lon="-1.1891705257276164"><ele>375.3333333333333</ele><time>2026-03-31T08:11:54Z</time></trkpt><trkpt lat="42.176307081192924" lon="-1.189292838133945"><ele>376.0</ele><time>2026-03-31T08:11:55Z</time></trkpt><trkpt lat="42.176456304277266" lon="-1.1894234018758194"><ele>376.3333333333333</ele><time>2026-03-31T08:11:56Z</time></trkpt><trkpt lat="42.176609417297854" lon="-1.189554841001562"><ele>376.6666666666667</ele><time>2026-03-31T08:11:57Z</time></trkpt><trkpt lat="42.1767653787603" lon="-1.1896893881917876"><ele>377.0</ele><time>2026-03-31T08:11:58Z</time></trkpt><trkpt lat="42.17692007009621" lon="-1.1898253887491577"><ele>377.0</ele><time>2026-03-31T08:11:59Z</time></trkpt><trkpt lat="42.17707291955226" lon="-1.1899579945096752"><ele>377.0</ele><time>2026-03-31T08:12:00Z</time></trkpt><trkpt lat="42.17722631057985" lon="-1.1900899111825378"><ele>377.0</ele><time>2026-03-31T08:12:01Z</time></trkpt><trkpt lat="42.17738079158331" lon="-1.1902217917866709"><ele>376.6666666666667</ele><time>2026-03-31T08:12:02Z</time></trkpt><trkpt lat="42.17753498104919" lon="-1.1903555033531068"><ele>376.3333333333333</ele><time>2026-03-31T08:12:03Z</time></trkpt><trkpt lat="42.17768880992117" lon="-1.1904893508603223"><ele>376.0</ele><time>2026-03-31T08:12:04Z</time></trkpt><trkpt lat="42.17783943953817" lon="-1.190619544468597"><ele>376.0</ele><time>2026-03-31T08:12:05Z</time></trkpt><trkpt lat="42.177988956160306" lon="-1.1907517082889287"><ele>376.0</ele><time>2026-03-31T08:12:06Z</time></trkpt><trkpt lat="42.17813532019103" lon="-1.190877387210527"><ele>376.0</ele><time>2026-03-31T08:12:07Z</time></trkpt><trkpt lat="42.17827926906487" lon="-1.1910056523144357"><ele>376.0</ele><time>2026-03-31T08:12:08Z</time></trkpt><trkpt lat="42.178417074096174" lon="-1.191126944240972"><ele>376.0</ele><time>2026-03-31T08:12:09Z</time></trkpt><trkpt lat="42.178545999324754" lon="-1.191241861305621"><ele>376.0</ele><time>2026-03-31T08:12:10Z</time></trkpt><trkpt lat="42.17866303713245" lon="-1.1913471344580908"><ele>376.0</ele><time>2026-03-31T08:12:11Z</time></trkpt><trkpt lat="42.17878200896591" lon="-1.191448167962774"><ele>376.0</ele><time>2026-03-31T08:12:12Z</time></trkpt><trkpt lat="42.17890185374248" lon="-1.1915364376271333"><ele>376.0</ele><time>2026-03-31T08:12:13Z</time></trkpt><trkpt lat="42.17901369536122" lon="-1.1916114718137434"><ele>376.0</ele><time>2026-03-31T08:12:14Z</time></trkpt><trkpt lat="42.17912194423768" lon="-1.191679273688455"><ele>376.6</ele><time>2026-03-31T08:12:15Z</time></trkpt><trkpt lat="42.17923014031417" lon="-1.1917365414005754"><ele>377.20000000000005</ele><time>2026-03-31T08:12:16Z</time></trkpt><trkpt lat="42.17933206762281" lon="-1.1917779952896703"><ele>377.79999999999995</ele><time>2026-03-31T08:12:17Z</time></trkpt><trkpt lat="42.17941806638485" lon="-1.1918086096171414"><ele>378.4</ele><time>2026-03-31T08:12:18Z</time></trkpt><trkpt lat="42.17949206166177" lon="-1.1918462702136186"><ele>379.0</ele><time>2026-03-31T08:12:19Z</time></trkpt><trkpt lat="42.17955047212335" lon="-1.1918984989894748"><ele>379.0</ele><time>2026-03-31T08:12:20Z</time></trkpt><trkpt lat="42.17960883784359" lon="-1.1920326731474689"><ele>379.0</ele><time>2026-03-31T08:12:22Z</time></trkpt><trkpt lat="42.179562439469876" lon="-1.1921361375963675"><ele>379.0</ele><time>2026-03-31T08:12:36Z</time></trkpt><trkpt lat="42.17952190309439" lon="-1.1922085241509193"><ele>379.0</ele><time>2026-03-31T08:12:37Z</time></trkpt><trkpt lat="42.179448265005426" lon="-1.1923303995965522"><ele>379.0</ele><time>2026-03-31T08:12:38Z</time></trkpt><trkpt lat="42.17936866733062" lon="-1.1924736524364452"><ele>379.25</ele><time>2026-03-31T08:12:39Z</time></trkpt><trkpt lat="42.17930460400448" lon="-1.1926158175579358"><ele>379.5</ele><time>2026-03-31T08:12:40Z</time></trkpt><trkpt lat="42.179237923938835" lon="-1.192760324723832"><ele>379.75</ele><time>2026-03-31T08:12:41Z</time></trkpt><trkpt lat="42.17916889142209" lon="-1.192905502831501"><ele>380.0</ele><time>2026-03-31T08:12:42Z</time></trkpt><trkpt lat="42.17909620748124" lon="-1.1930533744511167"><ele>380.0</ele><time>2026-03-31T08:12:43Z</time></trkpt><trkpt lat="42.17901979465549" lon="-1.1932122290077851"><ele>380.0</ele><time>2026-03-31T08:12:44Z</time></trkpt><trkpt lat="42.178945619212094" lon="-1.1933913002337744"><ele>380.0</ele><time>2026-03-31T08:12:45Z</time></trkpt><trkpt lat="42.178874591028496" lon="-1.1935920642330748"><ele>380.0</ele><time>2026-03-31T08:12:46Z</time></trkpt><trkpt lat="42.17880909903707" lon="-1.1938107012016195"><ele>380.0</ele><time>2026-03-31T08:12:47Z</time></trkpt><trkpt lat="42.17874575751056" lon="-1.194042541032915"><ele>380.0</ele><time>2026-03-31T08:12:48Z</time></trkpt><trkpt lat="42.17868978520468" lon="-1.1942782743223637"><ele>380.0</ele><time>2026-03-31T08:12:49Z</time></trkpt><trkpt lat="42.17863920222898" lon="-1.194521744109496"><ele>380.0</ele><time>2026-03-31T08:12:50Z</time></trkpt><trkpt lat="42.17858596128416" lon="-1.194755592571533"><ele>380.0</ele><time>2026-03-31T08:12:51Z</time></trkpt><trkpt lat="42.178534789088815" lon="-1.1949781377139985"><ele>380.33333333333337</ele><time>2026-03-31T08:12:52Z</time></trkpt><trkpt lat="42.17848861397974" lon="-1.195189914741851"><ele>380.6666666666667</ele><time>2026-03-31T08:12:53Z</time></trkpt><trkpt lat="42.17844331475974" lon="-1.1953902174470046"><ele>381.0</ele><time>2026-03-31T08:12:54Z</time></trkpt><trkpt lat="42.1784007712329" lon="-1.1955921518251056"><ele>381.0</ele><time>2026-03-31T08:12:55Z</time></trkpt><trkpt lat="42.17835483366509" lon="-1.1958002640483683"><ele>381.0</ele><time>2026-03-31T08:12:56Z</time></trkpt><trkpt lat="42.17831230820232" lon="-1.1960095459494116"><ele>381.0</ele><time>2026-03-31T08:12:57Z</time></trkpt><trkpt lat="42.178270753012995" lon="-1.1962247586632944"><ele>381.0</ele><time>2026-03-31T08:12:58Z</time></trkpt><trkpt lat="42.1782268465278" lon="-1.1964431971322806"><ele>381.0</ele><time>2026-03-31T08:12:59Z</time></trkpt><trkpt lat="42.17817938869636" lon="-1.1966587863634597"><ele>381.0</ele><time>2026-03-31T08:13:00Z</time></trkpt><trkpt lat="42.17812779039659" lon="-1.1968816447614088"><ele>381.6666666666667</ele><time>2026-03-31T08:13:01Z</time></trkpt><trkpt lat="42.17807507495986" lon="-1.197103770838596"><ele>382.33333333333337</ele><time>2026-03-31T08:13:02Z</time></trkpt><trkpt lat="42.17802767618196" lon="-1.1973288499772494"><ele>383.0</ele><time>2026-03-31T08:13:03Z</time></trkpt><trkpt lat="42.17797727291443" lon="-1.1975605715218647"><ele>383.0</ele><time>2026-03-31T08:13:04Z</time></trkpt><trkpt lat="42.177929938520535" lon="-1.197789606045856"><ele>383.0</ele><time>2026-03-31T08:13:05Z</time></trkpt><trkpt lat="42.177877450707484" lon="-1.1980251424582842"><ele>383.0</ele><time>2026-03-31T08:13:06Z</time></trkpt><trkpt lat="42.177827223381804" lon="-1.1982539302203157"><ele>383.6666666666667</ele><time>2026-03-31T08:13:07Z</time></trkpt><trkpt lat="42.17778032012685" lon="-1.198477913618734"><ele>384.33333333333337</ele><time>2026-03-31T08:13:08Z</time></trkpt><trkpt lat="42.17773234662048" lon="-1.1987087646409706"><ele>385.0</ele><time>2026-03-31T08:13:09Z</time></trkpt><trkpt lat="42.177685229648" lon="-1.1989302766700756"><ele>385.0</ele><time>2026-03-31T08:13:10Z</time></trkpt><trkpt lat="42.17764141718413" lon="-1.1991401240153012"><ele>385.0</ele><time>2026-03-31T08:13:11Z</time></trkpt><trkpt lat="42.17759613037765" lon="-1.1993377332700155"><ele>385.0</ele><time>2026-03-31T08:13:12Z</time></trkpt><trkpt lat="42.17755644758985" lon="-1.1995147305470955"><ele>385.0</ele><time>2026-03-31T08:13:13Z</time></trkpt><trkpt lat="42.17751725192061" lon="-1.1996799113960035"><ele>385.0</ele><time>2026-03-31T08:13:14Z</time></trkpt><trkpt lat="42.177482746723435" lon="-1.1998341320229455"><ele>385.0</ele><time>2026-03-31T08:13:15Z</time></trkpt><trkpt lat="42.177450406076474" lon="-1.1999660781347201"><ele>385.0</ele><time>2026-03-31T08:13:16Z</time></trkpt><trkpt lat="42.177424568840976" lon="-1.2000737543371485"><ele>385.0</ele><time>2026-03-31T08:13:17Z</time></trkpt><trkpt lat="42.177401560717875" lon="-1.2001761635338246"><ele>384.8</ele><time>2026-03-31T08:13:18Z</time></trkpt><trkpt lat="42.177378900100976" lon="-1.2002954602412401"><ele>384.6</ele><time>2026-03-31T08:13:19Z</time></trkpt><trkpt lat="42.17735291503854" lon="-1.200422453478995"><ele>384.4</ele><time>2026-03-31T08:13:20Z</time></trkpt><trkpt lat="42.17732391258362" lon="-1.2005656810469925"><ele>384.2</ele><time>2026-03-31T08:13:21Z</time></trkpt><trkpt lat="42.17729275070241" lon="-1.200722943554636"><ele>384.0</ele><time>2026-03-31T08:13:22Z</time></trkpt><trkpt lat="42.177257443638375" lon="-1.2008882360421216"><ele>382.5</ele><time>2026-03-31T08:13:23Z</time></trkpt><trkpt lat="42.17721989179844" lon="-1.201056179926282"><ele>381.0</ele><time>2026-03-31T08:13:24Z</time></trkpt><trkpt lat="42.177184485942114" lon="-1.2012232869237565"><ele>379.5</ele><time>2026-03-31T08:13:25Z</time></trkpt><trkpt lat="42.17714981815312" lon="-1.2013919259894181"><ele>378.0</ele><time>2026-03-31T08:13:26Z</time></trkpt><trkpt lat="42.17711703276466" lon="-1.2015611062040932"><ele>378.0</ele><time>2026-03-31T08:13:27Z</time></trkpt><trkpt lat="42.17707735124275" lon="-1.2017263478038844"><ele>378.0</ele><time>2026-03-31T08:13:28Z</time></trkpt><trkpt lat="42.177038864925144" lon="-1.2018938406170425"><ele>378.0</ele><time>2026-03-31T08:13:29Z</time></trkpt><trkpt lat="42.17700274595706" lon="-1.2020571423495305"><ele>378.0</ele><time>2026-03-31T08:13:30Z</time></trkpt><trkpt lat="42.176967341734176" lon="-1.2022182638582537"><ele>378.0</ele><time>2026-03-31T08:13:31Z</time></trkpt><trkpt lat="42.17692660224558" lon="-1.2023773943632046"><ele>378.0</ele><time>2026-03-31T08:13:32Z</time></trkpt><trkpt lat="42.17688972122807" lon="-1.2025380967299557"><ele>378.0</ele><time>2026-03-31T08:13:33Z</time></trkpt><trkpt lat="42.17686130212508" lon="-1.202689554909053"><ele>378.0</ele><time>2026-03-31T08:13:34Z</time></trkpt><trkpt lat="42.17683428206045" lon="-1.202825709398563"><ele>378.0</ele><time>2026-03-31T08:13:35Z</time></trkpt><trkpt lat="42.176808203194575" lon="-1.202965868200121"><ele>378.0</ele><time>2026-03-31T08:13:36Z</time></trkpt><trkpt lat="42.1767759062384" lon="-1.2031329477351929"><ele>378.0</ele><time>2026-03-31T08:13:37Z</time></trkpt><trkpt lat="42.176738310436136" lon="-1.2033084350304488"><ele>378.0</ele><time>2026-03-31T08:13:38Z</time></trkpt><trkpt lat="42.17669370454083" lon="-1.2034923698689888"><ele>378.0</ele><time>2026-03-31T08:13:39Z</time></trkpt><trkpt lat="42.17664779805871" lon="-1.2036795518824512"><ele>378.0</ele><time>2026-03-31T08:13:40Z</time></trkpt><trkpt lat="42.17660683521789" lon="-1.203869199492827"><ele>378.0</ele><time>2026-03-31T08:13:41Z</time></trkpt><trkpt lat="42.176566464300244" lon="-1.204065818964007"><ele>378.0</ele><time>2026-03-31T08:13:42Z</time></trkpt><trkpt lat="42.17651759917956" lon="-1.2042655220202934"><ele>378.0</ele><time>2026-03-31T08:13:43Z</time></trkpt><trkpt lat="42.17647382095182" lon="-1.2044659718448731"><ele>378.0</ele><time>2026-03-31T08:13:44Z</time></trkpt><trkpt lat="42.176424820904174" lon="-1.2046870648141015"><ele>378.0</ele><time>2026-03-31T08:13:45Z</time></trkpt><trkpt lat="42.176369827250525" lon="-1.2049196533796296"><ele>378.0</ele><time>2026-03-31T08:13:46Z</time></trkpt><trkpt lat="42.17631884513301" lon="-1.2051535194273284"><ele>378.0</ele><time>2026-03-31T08:13:47Z</time></trkpt><trkpt lat="42.176275509729486" lon="-1.20539427393456"><ele>378.0</ele><time>2026-03-31T08:13:48Z</time></trkpt><trkpt lat="42.17622581398016" lon="-1.2056347020410172"><ele>377.6666666666667</ele><time>2026-03-31T08:13:49Z</time></trkpt><trkpt lat="42.176164335455205" lon="-1.2058747831540417"><ele>377.33333333333337</ele><time>2026-03-31T08:13:50Z</time></trkpt><trkpt lat="42.17610695571004" lon="-1.2061174481255457"><ele>377.0</ele><time>2026-03-31T08:13:51Z</time></trkpt><trkpt lat="42.17605863351275" lon="-1.2063631056846482"><ele>377.33333333333337</ele><time>2026-03-31T08:13:52Z</time></trkpt><trkpt lat="42.17601078024709" lon="-1.206612073443583"><ele>377.6666666666667</ele><time>2026-03-31T08:13:53Z</time></trkpt><trkpt lat="42.17594793734685" lon="-1.2068606317162647"><ele>378.0</ele><time>2026-03-31T08:13:54Z</time></trkpt><trkpt lat="42.17588830126207" lon="-1.2071121447582325"><ele>378.0</ele><time>2026-03-31T08:13:55Z</time></trkpt><trkpt lat="42.17583433819687" lon="-1.2073693872867075"><ele>378.0</ele><time>2026-03-31T08:13:56Z</time></trkpt><trkpt lat="42.175784496641676" lon="-1.2076316824155477"><ele>378.0</ele><time>2026-03-31T08:13:57Z</time></trkpt><trkpt lat="42.175731487649706" lon="-1.2078831375890184"><ele>377.6666666666667</ele><time>2026-03-31T08:13:58Z</time></trkpt><trkpt lat="42.175670440022905" lon="-1.20814205880035"><ele>377.33333333333337</ele><time>2026-03-31T08:13:59Z</time></trkpt><trkpt lat="42.175611156792904" lon="-1.2084069448181192"><ele>377.0</ele><time>2026-03-31T08:14:00Z</time></trkpt><trkpt lat="42.175556142949965" lon="-1.2086713893163423"><ele>377.0</ele><time>2026-03-31T08:14:01Z</time></trkpt><trkpt lat="42.17549620168508" lon="-1.2089359338151227"><ele>377.0</ele><time>2026-03-31T08:14:02Z</time></trkpt><trkpt lat="42.17543532533604" lon="-1.2091963725347192"><ele>377.0</ele><time>2026-03-31T08:14:03Z</time></trkpt><trkpt lat="42.17537371107047" lon="-1.2094661008086112"><ele>377.33333333333337</ele><time>2026-03-31T08:14:04Z</time></trkpt><trkpt lat="42.17532173278666" lon="-1.2097373256336574"><ele>377.6666666666667</ele><time>2026-03-31T08:14:05Z</time></trkpt><trkpt lat="42.175264204273645" lon="-1.210008007161209"><ele>378.0</ele><time>2026-03-31T08:14:06Z</time></trkpt><trkpt lat="42.175198864485644" lon="-1.2102850897511448"><ele>378.3333333333333</ele><time>2026-03-31T08:14:07Z</time></trkpt><trkpt lat="42.175136150686896" lon="-1.2105532565966948"><ele>378.66666666666663</ele><time>2026-03-31T08:14:08Z</time></trkpt><trkpt lat="42.17507899001945" lon="-1.2108217297163977"><ele>379.0</ele><time>2026-03-31T08:14:09Z</time></trkpt><trkpt lat="42.17502336267875" lon="-1.2110862024925741"><ele>378.3333333333333</ele><time>2026-03-31T08:14:10Z</time></trkpt><trkpt lat="42.17496506228538" lon="-1.21134822039642"><ele>377.6666666666667</ele><time>2026-03-31T08:14:11Z</time></trkpt><trkpt lat="42.17489924630359" lon="-1.211622599295611"><ele>377.0</ele><time>2026-03-31T08:14:12Z</time></trkpt><trkpt lat="42.174840668022966" lon="-1.2118923915742768"><ele>376.6666666666667</ele><time>2026-03-31T08:14:13Z</time></trkpt><trkpt lat="42.17477981011764" lon="-1.2121657568124458"><ele>376.3333333333333</ele><time>2026-03-31T08:14:14Z</time></trkpt><trkpt lat="42.17471939582224" lon="-1.212434384066851"><ele>376.0</ele><time>2026-03-31T08:14:15Z</time></trkpt><trkpt lat="42.17466416349956" lon="-1.2126984638575529"><ele>376.0</ele><time>2026-03-31T08:14:16Z</time></trkpt><trkpt lat="42.174601552753245" lon="-1.2129619396922988"><ele>376.0</ele><time>2026-03-31T08:14:17Z</time></trkpt><trkpt lat="42.17454256651527" lon="-1.2132178747081488"><ele>376.0</ele><time>2026-03-31T08:14:18Z</time></trkpt><trkpt lat="42.1744919849337" lon="-1.2134692545874195"><ele>376.0</ele><time>2026-03-31T08:14:19Z</time></trkpt><trkpt lat="42.17444009170595" lon="-1.213723059010239"><ele>376.0</ele><time>2026-03-31T08:14:20Z</time></trkpt><trkpt lat="42.17437975224437" lon="-1.2139831629102174"><ele>376.0</ele><time>2026-03-31T08:14:21Z</time></trkpt><trkpt lat="42.17431703543023" lon="-1.2142479134355204"><ele>376.3333333333333</ele><time>2026-03-31T08:14:22Z</time></trkpt><trkpt lat="42.1742569573557" lon="-1.2145135449282993"><ele>376.6666666666667</ele><time>2026-03-31T08:14:23Z</time></trkpt><trkpt lat="42.17419877059424" lon="-1.2147788603127776"><ele>377.0</ele><time>2026-03-31T08:14:24Z</time></trkpt><trkpt lat="42.17414135341313" lon="-1.2150423258766418"><ele>376.6666666666667</ele><time>2026-03-31T08:14:25Z</time></trkpt><trkpt lat="42.17408424243081" lon="-1.2153025365349048"><ele>376.3333333333333</ele><time>2026-03-31T08:14:26Z</time></trkpt><trkpt lat="42.174031498498586" lon="-1.2155663245555046"><ele>376.0</ele><time>2026-03-31T08:14:27Z</time></trkpt><trkpt lat="42.17397793419612" lon="-1.2158276894239939"><ele>376.0</ele><time>2026-03-31T08:14:28Z</time></trkpt><trkpt lat="42.17392172891897" lon="-1.2160858131593568"><ele>376.0</ele><time>2026-03-31T08:14:29Z</time></trkpt><trkpt lat="42.17386839072733" lon="-1.2163449234953234"><ele>376.0</ele><time>2026-03-31T08:14:30Z</time></trkpt><trkpt lat="42.173817822939874" lon="-1.216609532653105"><ele>375.66666666666663</ele><time>2026-03-31T08:14:31Z</time></trkpt><trkpt lat="42.17376958140471" lon="-1.216869779616863"><ele>375.3333333333333</ele><time>2026-03-31T08:14:32Z</time></trkpt><trkpt lat="42.17371846289778" lon="-1.2171377921792637"><ele>375.0</ele><time>2026-03-31T08:14:33Z</time></trkpt><trkpt lat="42.17366214775806" lon="-1.217398379864043"><ele>374.6666666666667</ele><time>2026-03-31T08:14:34Z</time></trkpt><trkpt lat="42.17360450383815" lon="-1.2176618603764269"><ele>374.33333333333337</ele><time>2026-03-31T08:14:35Z</time></trkpt><trkpt lat="42.173551248879996" lon="-1.2179231361729588"><ele>374.0</ele><time>2026-03-31T08:14:36Z</time></trkpt><trkpt lat="42.173498445720554" lon="-1.2181872279733665"><ele>374.6666666666667</ele><time>2026-03-31T08:14:37Z</time></trkpt><trkpt lat="42.17344222618711" lon="-1.2184528773859595"><ele>375.3333333333333</ele><time>2026-03-31T08:14:38Z</time></trkpt><trkpt lat="42.17338099854508" lon="-1.218710844564379"><ele>376.0</ele><time>2026-03-31T08:14:39Z</time></trkpt><trkpt lat="42.1733144992521" lon="-1.2189803072479062"><ele>376.66666666666663</ele><time>2026-03-31T08:14:40Z</time></trkpt><trkpt lat="42.17325955327437" lon="-1.219255164111859"><ele>377.3333333333333</ele><time>2026-03-31T08:14:41Z</time></trkpt><trkpt lat="42.17320220202661" lon="-1.2195340767575027"><ele>378.0</ele><time>2026-03-31T08:14:42Z</time></trkpt><trkpt lat="42.17313782286763" lon="-1.2198117161477617"><ele>379.3333333333333</ele><time>2026-03-31T08:14:43Z</time></trkpt><trkpt lat="42.173075127546134" lon="-1.2200967994730534"><ele>380.66666666666663</ele><time>2026-03-31T08:14:44Z</time></trkpt><trkpt lat="42.17301863470403" lon="-1.2203704320490532"><ele>382.0</ele><time>2026-03-31T08:14:45Z</time></trkpt><trkpt lat="42.17295646526783" lon="-1.2206451158308953"><ele>382.0</ele><time>2026-03-31T08:14:46Z</time></trkpt><trkpt lat="42.172896101435704" lon="-1.2209149036344777"><ele>382.0</ele><time>2026-03-31T08:14:47Z</time></trkpt><trkpt lat="42.17283831857923" lon="-1.2211873092824153"><ele>382.0</ele><time>2026-03-31T08:14:48Z</time></trkpt><trkpt lat="42.172777899981554" lon="-1.2214596014460701"><ele>382.0</ele><time>2026-03-31T08:14:49Z</time></trkpt><trkpt lat="42.17271212040868" lon="-1.2217375950439475"><ele>382.0</ele><time>2026-03-31T08:14:50Z</time></trkpt><trkpt lat="42.17265113248826" lon="-1.2220189675285247"><ele>382.0</ele><time>2026-03-31T08:14:51Z</time></trkpt><trkpt lat="42.172591965484635" lon="-1.2222998163246332"><ele>381.3333333333333</ele><time>2026-03-31T08:14:52Z</time></trkpt><trkpt lat="42.17252960186836" lon="-1.2225826835870466"><ele>380.6666666666667</ele><time>2026-03-31T08:14:53Z</time></trkpt><trkpt lat="42.172468246461" lon="-1.2228671338556283"><ele>380.0</ele><time>2026-03-31T08:14:54Z</time></trkpt><trkpt lat="42.172409230180804" lon="-1.223145185582672"><ele>380.0</ele><time>2026-03-31T08:14:55Z</time></trkpt><trkpt lat="42.172352939997936" lon="-1.2234236962779164"><ele>380.0</ele><time>2026-03-31T08:14:56Z</time></trkpt><trkpt lat="42.17229450858153" lon="-1.223698442182854"><ele>380.0</ele><time>2026-03-31T08:14:57Z</time></trkpt><trkpt lat="42.17222978160666" lon="-1.223975024026247"><ele>380.33333333333337</ele><time>2026-03-31T08:14:58Z</time></trkpt><trkpt lat="42.172163137231244" lon="-1.2242506143217364"><ele>380.6666666666667</ele><time>2026-03-31T08:14:59Z</time></trkpt><trkpt lat="42.17210080209337" lon="-1.2245169419229172"><ele>381.0</ele><time>2026-03-31T08:15:00Z</time></trkpt><trkpt lat="42.17204056614703" lon="-1.2247822535293398"><ele>381.0</ele><time>2026-03-31T08:15:01Z</time></trkpt><trkpt lat="42.171982648471804" lon="-1.225052949393311"><ele>381.0</ele><time>2026-03-31T08:15:02Z</time></trkpt><trkpt lat="42.17192497332743" lon="-1.225320252411904"><ele>381.0</ele><time>2026-03-31T08:15:03Z</time></trkpt><trkpt lat="42.17186827032307" lon="-1.2255884165169704"><ele>381.0</ele><time>2026-03-31T08:15:04Z</time></trkpt><trkpt lat="42.17181042928795" lon="-1.2258593753169045"><ele>381.0</ele><time>2026-03-31T08:15:05Z</time></trkpt><trkpt lat="42.17175022849052" lon="-1.2261318513650827"><ele>381.0</ele><time>2026-03-31T08:15:06Z</time></trkpt><trkpt lat="42.17168844864321" lon="-1.2264050935473625"><ele>380.6666666666667</ele><time>2026-03-31T08:15:07Z</time></trkpt><trkpt lat="42.17163099086765" lon="-1.226678851201572"><ele>380.33333333333337</ele><time>2026-03-31T08:15:08Z</time></trkpt><trkpt lat="42.17157833179662" lon="-1.2269486992924417"><ele>380.0</ele><time>2026-03-31T08:15:09Z</time></trkpt><trkpt lat="42.17152111840586" lon="-1.2272138877537624"><ele>380.0</ele><time>2026-03-31T08:15:10Z</time></trkpt><trkpt lat="42.17145666708311" lon="-1.227486478256392"><ele>380.0</ele><time>2026-03-31T08:15:11Z</time></trkpt><trkpt lat="42.171403166952196" lon="-1.227749875915033"><ele>380.0</ele><time>2026-03-31T08:15:12Z</time></trkpt><trkpt lat="42.17134374811169" lon="-1.2280153813230772"><ele>379.6666666666667</ele><time>2026-03-31T08:15:13Z</time></trkpt><trkpt lat="42.17128345065643" lon="-1.2282810385199636"><ele>379.3333333333333</ele><time>2026-03-31T08:15:14Z</time></trkpt><trkpt lat="42.17122541727506" lon="-1.2285472388557457"><ele>379.0</ele><time>2026-03-31T08:15:15Z</time></trkpt><trkpt lat="42.171170960573704" lon="-1.2288125900535742"><ele>378.66666666666663</ele><time>2026-03-31T08:15:16Z</time></trkpt><trkpt lat="42.17111068586892" lon="-1.2290783586569234"><ele>378.3333333333333</ele><time>2026-03-31T08:15:17Z</time></trkpt><trkpt lat="42.17104680235978" lon="-1.2293509783379324"><ele>378.0</ele><time>2026-03-31T08:15:18Z</time></trkpt><trkpt lat="42.170990334168" lon="-1.2296129593907519"><ele>378.3333333333333</ele><time>2026-03-31T08:15:19Z</time></trkpt><trkpt lat="42.170936056240485" lon="-1.2298820633260077"><ele>378.66666666666663</ele><time>2026-03-31T08:15:20Z</time></trkpt><trkpt lat="42.17087726786494" lon="-1.230147066111625"><ele>379.0</ele><time>2026-03-31T08:15:21Z</time></trkpt><trkpt lat="42.17082322163396" lon="-1.230403376929646"><ele>379.66666666666663</ele><time>2026-03-31T08:15:22Z</time></trkpt><trkpt lat="42.17077733039846" lon="-1.23064369716636"><ele>380.3333333333333</ele><time>2026-03-31T08:15:23Z</time></trkpt><trkpt lat="42.17074170714206" lon="-1.2308787044947125"><ele>381.0</ele><time>2026-03-31T08:15:24Z</time></trkpt><trkpt lat="42.17071045606648" lon="-1.2311091974952315"><ele>381.0</ele><time>2026-03-31T08:15:25Z</time></trkpt><trkpt lat="42.17068073890536" lon="-1.2313277845451085"><ele>381.0</ele><time>2026-03-31T08:15:26Z</time></trkpt><trkpt lat="42.170640952455855" lon="-1.2315504276294087"><ele>381.0</ele><time>2026-03-31T08:15:27Z</time></trkpt><trkpt lat="42.17062541602097" lon="-1.2317719942424838"><ele>381.0</ele><time>2026-03-31T08:15:28Z</time></trkpt><trkpt lat="42.17061044159611" lon="-1.2319501158946464"><ele>381.0</ele><time>2026-03-31T08:15:29Z</time></trkpt><trkpt lat="42.17061028760476" lon="-1.2321254292023247"><ele>381.0</ele><time>2026-03-31T08:15:30Z</time></trkpt><trkpt lat="42.17061413618844" lon="-1.2322828807861093"><ele>381.0</ele><time>2026-03-31T08:15:31Z</time></trkpt><trkpt lat="42.17062138340487" lon="-1.2324060199694216"><ele>380.75</ele><time>2026-03-31T08:15:32Z</time></trkpt><trkpt lat="42.17062659678935" lon="-1.232495668343206"><ele>380.5</ele><time>2026-03-31T08:15:33Z</time></trkpt><trkpt lat="42.170643002776295" lon="-1.2326324733227725"><ele>380.25</ele><time>2026-03-31T08:15:35Z</time></trkpt><trkpt lat="42.17044546723623" lon="-1.232685765537742"><ele>380.0</ele><time>2026-03-31T08:15:37Z</time></trkpt><trkpt lat="42.1703504669681" lon="-1.2326815472927029"><ele>380.0</ele><time>2026-03-31T08:15:38Z</time></trkpt><trkpt lat="42.17024151827659" lon="-1.2326813644750527"><ele>380.0</ele><time>2026-03-31T08:15:39Z</time></trkpt><trkpt lat="42.17010762093446" lon="-1.2326421545799244"><ele>380.0</ele><time>2026-03-31T08:15:40Z</time></trkpt><trkpt lat="42.16993323674936" lon="-1.2326180784678993"><ele>380.0</ele><time>2026-03-31T08:15:41Z</time></trkpt><trkpt lat="42.16974689368021" lon="-1.2326265659760665"><ele>379.33333333333337</ele><time>2026-03-31T08:15:42Z</time></trkpt><trkpt lat="42.169555244851246" lon="-1.2326108547595036"><ele>378.6666666666667</ele><time>2026-03-31T08:15:43Z</time></trkpt><trkpt lat="42.16936396026652" lon="-1.2325929076832915"><ele>378.0</ele><time>2026-03-31T08:15:44Z</time></trkpt><trkpt lat="42.1691756702769" lon="-1.2325746984284418"><ele>378.0</ele><time>2026-03-31T08:15:45Z</time></trkpt><trkpt lat="42.168984571919715" lon="-1.2325562175667601"><ele>378.0</ele><time>2026-03-31T08:15:46Z</time></trkpt><trkpt lat="42.16879229143017" lon="-1.2325376224013422"><ele>378.0</ele><time>2026-03-31T08:15:47Z</time></trkpt><trkpt lat="42.16859715372449" lon="-1.2325187492133634"><ele>378.0</ele><time>2026-03-31T08:15:48Z</time></trkpt><trkpt lat="42.16840315055135" lon="-1.2324779020064651"><ele>378.0</ele><time>2026-03-31T08:15:49Z</time></trkpt><trkpt lat="42.1682067990636" lon="-1.2324627571592275"><ele>378.0</ele><time>2026-03-31T08:15:50Z</time></trkpt><trkpt lat="42.168007440237815" lon="-1.2324416194904593"><ele>377.0</ele><time>2026-03-31T08:15:51Z</time></trkpt><trkpt lat="42.16781470299097" lon="-1.232443998071649"><ele>376.0</ele><time>2026-03-31T08:15:52Z</time></trkpt><trkpt lat="42.16762358220772" lon="-1.2324268497582342"><ele>375.0</ele><time>2026-03-31T08:15:53Z</time></trkpt><trkpt lat="42.167431861950405" lon="-1.2324096476507234"><ele>375.0</ele><time>2026-03-31T08:15:54Z</time></trkpt><trkpt lat="42.16723615861968" lon="-1.2323911732615043"><ele>375.0</ele><time>2026-03-31T08:15:55Z</time></trkpt><trkpt lat="42.167038590517926" lon="-1.2323720537713019"><ele>375.0</ele><time>2026-03-31T08:15:56Z</time></trkpt><trkpt lat="42.16683285020309" lon="-1.232352143417992"><ele>375.0</ele><time>2026-03-31T08:15:57Z</time></trkpt><trkpt lat="42.166632584653186" lon="-1.2323335020172028"><ele>375.0</ele><time>2026-03-31T08:15:58Z</time></trkpt><trkpt lat="42.16643301915586" lon="-1.2323168956267512"><ele>375.0</ele><time>2026-03-31T08:15:59Z</time></trkpt><trkpt lat="42.1662343717547" lon="-1.2323003656336493"><ele>375.3333333333333</ele><time>2026-03-31T08:16:00Z</time></trkpt><trkpt lat="42.166031160087734" lon="-1.232283455834922"><ele>375.66666666666663</ele><time>2026-03-31T08:16:01Z</time></trkpt><trkpt lat="42.16582820620737" lon="-1.2322665674919806"><ele>376.0</ele><time>2026-03-31T08:16:02Z</time></trkpt><trkpt lat="42.165621566672954" lon="-1.2322481480032272"><ele>376.0</ele><time>2026-03-31T08:16:03Z</time></trkpt><trkpt lat="42.165416339570235" lon="-1.2322285096537684"><ele>376.0</ele><time>2026-03-31T08:16:04Z</time></trkpt><trkpt lat="42.16520917730361" lon="-1.2322086861470267"><ele>376.0</ele><time>2026-03-31T08:16:05Z</time></trkpt><trkpt lat="42.164998197575564" lon="-1.2321897817236784"><ele>375.3333333333333</ele><time>2026-03-31T08:16:06Z</time></trkpt><trkpt lat="42.16478300642225" lon="-1.2321722503945085"><ele>374.6666666666667</ele><time>2026-03-31T08:16:07Z</time></trkpt><trkpt lat="42.16456206404783" lon="-1.2321531793118161"><ele>374.0</ele><time>2026-03-31T08:16:08Z</time></trkpt><trkpt lat="42.16434077160362" lon="-1.2321315660946763"><ele>374.0</ele><time>2026-03-31T08:16:09Z</time></trkpt><trkpt lat="42.16411631610756" lon="-1.2321086148485398"><ele>374.0</ele><time>2026-03-31T08:16:10Z</time></trkpt><trkpt lat="42.163905230104234" lon="-1.232087084597637"><ele>374.0</ele><time>2026-03-31T08:16:11Z</time></trkpt><trkpt lat="42.163697504009505" lon="-1.2320672699283928"><ele>374.0</ele><time>2026-03-31T08:16:12Z</time></trkpt><trkpt lat="42.16348882203584" lon="-1.2320491495368855"><ele>374.0</ele><time>2026-03-31T08:16:13Z</time></trkpt><trkpt lat="42.163283110531815" lon="-1.2320322984547836"><ele>374.0</ele><time>2026-03-31T08:16:14Z</time></trkpt><trkpt lat="42.16307929963639" lon="-1.2320155880943817"><ele>373.6666666666667</ele><time>2026-03-31T08:16:15Z</time></trkpt><trkpt lat="42.162877824080496" lon="-1.2319967315474023"><ele>373.3333333333333</ele><time>2026-03-31T08:16:16Z</time></trkpt><trkpt lat="42.16267893564521" lon="-1.231977283591487"><ele>373.0</ele><time>2026-03-31T08:16:17Z</time></trkpt><trkpt lat="42.16247256336633" lon="-1.2319574103347781"><ele>372.3333333333333</ele><time>2026-03-31T08:16:18Z</time></trkpt><trkpt lat="42.16227252247536" lon="-1.231941389664692"><ele>371.6666666666667</ele><time>2026-03-31T08:16:19Z</time></trkpt><trkpt lat="42.162050694066934" lon="-1.2319222434839843"><ele>371.0</ele><time>2026-03-31T08:16:20Z</time></trkpt><trkpt lat="42.16183307306282" lon="-1.2319034604569177"><ele>371.0</ele><time>2026-03-31T08:16:21Z</time></trkpt><trkpt lat="42.16161571015915" lon="-1.2318846996984985"><ele>371.0</ele><time>2026-03-31T08:16:22Z</time></trkpt><trkpt lat="42.161394656971346" lon="-1.2318656204310119"><ele>371.0</ele><time>2026-03-31T08:16:23Z</time></trkpt><trkpt lat="42.16117565888544" lon="-1.2318455249702558"><ele>371.6666666666667</ele><time>2026-03-31T08:16:24Z</time></trkpt><trkpt lat="42.160953168760564" lon="-1.2318250353004667"><ele>372.3333333333333</ele><time>2026-03-31T08:16:25Z</time></trkpt><trkpt lat="42.1607280528563" lon="-1.231804303818868"><ele>373.0</ele><time>2026-03-31T08:16:26Z</time></trkpt><trkpt lat="42.16050364340004" lon="-1.2317836373978244"><ele>373.3333333333333</ele><time>2026-03-31T08:16:27Z</time></trkpt><trkpt lat="42.16028085733592" lon="-1.2317631204814923"><ele>373.6666666666667</ele><time>2026-03-31T08:16:28Z</time></trkpt><trkpt lat="42.160060734138426" lon="-1.2317246101393278"><ele>374.0</ele><time>2026-03-31T08:16:29Z</time></trkpt><trkpt lat="42.15983821902349" lon="-1.231702790672368"><ele>373.0</ele><time>2026-03-31T08:16:30Z</time></trkpt><trkpt lat="42.15961773783711" lon="-1.2316831081808073"><ele>372.0</ele><time>2026-03-31T08:16:31Z</time></trkpt><trkpt lat="42.15939665670429" lon="-1.231663298173682"><ele>371.0</ele><time>2026-03-31T08:16:32Z</time></trkpt><trkpt lat="42.1591720709681" lon="-1.2316637854920278"><ele>371.0</ele><time>2026-03-31T08:16:33Z</time></trkpt><trkpt lat="42.1589532434692" lon="-1.2316227531338932"><ele>371.0</ele><time>2026-03-31T08:16:34Z</time></trkpt><trkpt lat="42.15872863090628" lon="-1.231606246800214"><ele>371.0</ele><time>2026-03-31T08:16:35Z</time></trkpt><trkpt lat="42.158501433750935" lon="-1.231585350177715"><ele>371.0</ele><time>2026-03-31T08:16:36Z</time></trkpt><trkpt lat="42.15827748297778" lon="-1.2315621459899384"><ele>371.0</ele><time>2026-03-31T08:16:37Z</time></trkpt><trkpt lat="42.15804625218556" lon="-1.231561852883451"><ele>371.5</ele><time>2026-03-31T08:16:38Z</time></trkpt><trkpt lat="42.157820275541816" lon="-1.2315405972443165"><ele>372.0</ele><time>2026-03-31T08:16:39Z</time></trkpt><trkpt lat="42.157595233928255" lon="-1.231519678071611"><ele>372.0</ele><time>2026-03-31T08:16:40Z</time></trkpt><trkpt lat="42.15736993608784" lon="-1.231498960700986"><ele>372.0</ele><time>2026-03-31T08:16:41Z</time></trkpt><trkpt lat="42.157147278286196" lon="-1.231478486096491"><ele>372.0</ele><time>2026-03-31T08:16:42Z</time></trkpt><trkpt lat="42.15692660324984" lon="-1.2314581938198055"><ele>371.3333333333333</ele><time>2026-03-31T08:16:43Z</time></trkpt><trkpt lat="42.156703748709866" lon="-1.2314377011303792"><ele>370.66666666666663</ele><time>2026-03-31T08:16:44Z</time></trkpt><trkpt lat="42.15648009529491" lon="-1.2314171349763503"><ele>370.0</ele><time>2026-03-31T08:16:45Z</time></trkpt><trkpt lat="42.156256786712134" lon="-1.2313966005299557"><ele>370.0</ele><time>2026-03-31T08:16:46Z</time></trkpt><trkpt lat="42.15602981359769" lon="-1.2313758311374776"><ele>370.0</ele><time>2026-03-31T08:16:47Z</time></trkpt><trkpt lat="42.15580569133621" lon="-1.2313539443723227"><ele>369.3333333333333</ele><time>2026-03-31T08:16:48Z</time></trkpt><trkpt lat="42.155585867142236" lon="-1.231320220517523"><ele>368.6666666666667</ele><time>2026-03-31T08:16:49Z</time></trkpt><trkpt lat="42.15536293209185" lon="-1.2313050188276462"><ele>368.0</ele><time>2026-03-31T08:16:50Z</time></trkpt><trkpt lat="42.155141256537846" lon="-1.2312822550949853"><ele>368.0</ele><time>2026-03-31T08:16:51Z</time></trkpt><trkpt lat="42.15491080700575" lon="-1.2312575733700246"><ele>368.0</ele><time>2026-03-31T08:16:52Z</time></trkpt><trkpt lat="42.15468035089018" lon="-1.2312368570541063"><ele>368.0</ele><time>2026-03-31T08:16:53Z</time></trkpt><trkpt lat="42.15445204672374" lon="-1.2312189709581958"><ele>368.0</ele><time>2026-03-31T08:16:54Z</time></trkpt><trkpt lat="42.1542260067208" lon="-1.2311969575683792"><ele>367.5</ele><time>2026-03-31T08:16:55Z</time></trkpt><trkpt lat="42.15400017768962" lon="-1.231174442202773"><ele>367.0</ele><time>2026-03-31T08:16:56Z</time></trkpt><trkpt lat="42.15377220849926" lon="-1.2311734022460452"><ele>367.0</ele><time>2026-03-31T08:16:57Z</time></trkpt><trkpt lat="42.15354032985252" lon="-1.2311533064833466"><ele>367.0</ele><time>2026-03-31T08:16:58Z</time></trkpt><trkpt lat="42.15331300176761" lon="-1.231133673060552"><ele>365.0</ele><time>2026-03-31T08:16:59Z</time></trkpt><trkpt lat="42.15308891789982" lon="-1.2311143187100777"><ele>363.0</ele><time>2026-03-31T08:17:00Z</time></trkpt><trkpt lat="42.15286397213344" lon="-1.2310948899316956"><ele>363.0</ele><time>2026-03-31T08:17:01Z</time></trkpt><trkpt lat="42.15264304220004" lon="-1.2310498925526994"><ele>363.0</ele><time>2026-03-31T08:17:02Z</time></trkpt><trkpt lat="42.15241070355535" lon="-1.2310487862493718"><ele>360.5</ele><time>2026-03-31T08:17:03Z</time></trkpt><trkpt lat="42.15218436506067" lon="-1.2310295436129683"><ele>358.0</ele><time>2026-03-31T08:17:04Z</time></trkpt><trkpt lat="42.15195591867986" lon="-1.2310102442606772"><ele>358.0</ele><time>2026-03-31T08:17:05Z</time></trkpt><trkpt lat="42.151729208039704" lon="-1.2309887857048731"><ele>358.0</ele><time>2026-03-31T08:17:06Z</time></trkpt><trkpt lat="42.15150315349966" lon="-1.2309675616179008"><ele>357.3333333333333</ele><time>2026-03-31T08:17:07Z</time></trkpt><trkpt lat="42.15127618805568" lon="-1.2309462520089693"><ele>356.6666666666667</ele><time>2026-03-31T08:17:08Z</time></trkpt><trkpt lat="42.15105614331149" lon="-1.2309269882176341"><ele>356.0</ele><time>2026-03-31T08:17:09Z</time></trkpt><trkpt lat="42.15083589618776" lon="-1.2308912000463939"><ele>355.33333333333337</ele><time>2026-03-31T08:17:10Z</time></trkpt><trkpt lat="42.1506133029107" lon="-1.2308899336003296"><ele>354.6666666666667</ele><time>2026-03-31T08:17:11Z</time></trkpt><trkpt lat="42.15039034721879" lon="-1.2308703540628716"><ele>354.0</ele><time>2026-03-31T08:17:12Z</time></trkpt><trkpt lat="42.150168481059076" lon="-1.2308510810117588"><ele>354.0</ele><time>2026-03-31T08:17:13Z</time></trkpt><trkpt lat="42.149947056051914" lon="-1.230830490848745"><ele>354.0</ele><time>2026-03-31T08:17:14Z</time></trkpt><trkpt lat="42.14972648339727" lon="-1.2307908983104723"><ele>354.0</ele><time>2026-03-31T08:17:15Z</time></trkpt><trkpt lat="42.14950619682485" lon="-1.2307710028075145"><ele>354.0</ele><time>2026-03-31T08:17:16Z</time></trkpt><trkpt lat="42.149287821745894" lon="-1.2307438524269312"><ele>354.0</ele><time>2026-03-31T08:17:17Z</time></trkpt><trkpt lat="42.14906678147049" lon="-1.2307216392625462"><ele>354.0</ele><time>2026-03-31T08:17:18Z</time></trkpt><trkpt lat="42.14883870964452" lon="-1.2307235081009305"><ele>353.0</ele><time>2026-03-31T08:17:19Z</time></trkpt><trkpt lat="42.14863336035424" lon="-1.2307052958440226"><ele>352.0</ele><time>2026-03-31T08:17:20Z</time></trkpt><trkpt lat="42.1484310904841" lon="-1.2306865632487762"><ele>351.0</ele><time>2026-03-31T08:17:21Z</time></trkpt><trkpt lat="42.14823803485607" lon="-1.2306676466978264"><ele>350.6666666666667</ele><time>2026-03-31T08:17:22Z</time></trkpt><trkpt lat="42.148057420943374" lon="-1.230649949247158"><ele>350.33333333333337</ele><time>2026-03-31T08:17:23Z</time></trkpt><trkpt lat="42.147867834761804" lon="-1.2306407282731773"><ele>350.0</ele><time>2026-03-31T08:17:24Z</time></trkpt><trkpt lat="42.14767347425843" lon="-1.2306426548655474"><ele>350.0</ele><time>2026-03-31T08:17:25Z</time></trkpt><trkpt lat="42.14748385552513" lon="-1.2306567543189295"><ele>350.0</ele><time>2026-03-31T08:17:26Z</time></trkpt><trkpt lat="42.14728844558845" lon="-1.230686234355286"><ele>350.0</ele><time>2026-03-31T08:17:27Z</time></trkpt><trkpt lat="42.147095153246035" lon="-1.230747573313948"><ele>350.33333333333337</ele><time>2026-03-31T08:17:28Z</time></trkpt><trkpt lat="42.14689521575752" lon="-1.2308022916526642"><ele>350.6666666666667</ele><time>2026-03-31T08:17:29Z</time></trkpt><trkpt lat="42.14669167887108" lon="-1.2308612809366501"><ele>351.0</ele><time>2026-03-31T08:17:30Z</time></trkpt><trkpt lat="42.14649044036812" lon="-1.2309134747028867"><ele>352.0</ele><time>2026-03-31T08:17:31Z</time></trkpt><trkpt lat="42.146285344280194" lon="-1.2309637282973438"><ele>353.0</ele><time>2026-03-31T08:17:32Z</time></trkpt><trkpt lat="42.14608103497511" lon="-1.2310158959189286"><ele>354.0</ele><time>2026-03-31T08:17:33Z</time></trkpt><trkpt lat="42.145876278761186" lon="-1.2310763122653041"><ele>351.6666666666667</ele><time>2026-03-31T08:17:34Z</time></trkpt><trkpt lat="42.14566710904159" lon="-1.2311381659331464"><ele>349.33333333333337</ele><time>2026-03-31T08:17:35Z</time></trkpt><trkpt lat="42.145460321110306" lon="-1.231191401082826"><ele>347.0</ele><time>2026-03-31T08:17:36Z</time></trkpt><trkpt lat="42.145253480443884" lon="-1.231248509887702"><ele>347.0</ele><time>2026-03-31T08:17:37Z</time></trkpt><trkpt lat="42.1450510277771" lon="-1.2313094100673325"><ele>347.0</ele><time>2026-03-31T08:17:38Z</time></trkpt><trkpt lat="42.144850957404465" lon="-1.2313660490272884"><ele>347.0</ele><time>2026-03-31T08:17:39Z</time></trkpt><trkpt lat="42.14464936635658" lon="-1.2314092250139723"><ele>346.0</ele><time>2026-03-31T08:17:40Z</time></trkpt><trkpt lat="42.14445142494634" lon="-1.2314840887715375"><ele>345.0</ele><time>2026-03-31T08:17:41Z</time></trkpt><trkpt lat="42.14424632700402" lon="-1.2315233570492718"><ele>344.0</ele><time>2026-03-31T08:17:42Z</time></trkpt><trkpt lat="42.14404272243111" lon="-1.2315891979537057"><ele>343.6666666666667</ele><time>2026-03-31T08:17:43Z</time></trkpt><trkpt lat="42.14384239432813" lon="-1.2316427553515918"><ele>343.3333333333333</ele><time>2026-03-31T08:17:44Z</time></trkpt><trkpt lat="42.143637867563385" lon="-1.2317184362730198"><ele>343.0</ele><time>2026-03-31T08:17:45Z</time></trkpt><trkpt lat="42.14342988374598" lon="-1.2317574403967786"><ele>343.0</ele><time>2026-03-31T08:17:46Z</time></trkpt><trkpt lat="42.143230516817056" lon="-1.2318244823202384"><ele>343.0</ele><time>2026-03-31T08:17:47Z</time></trkpt><trkpt lat="42.14302808562188" lon="-1.2318806329288814"><ele>343.0</ele><time>2026-03-31T08:17:48Z</time></trkpt><trkpt lat="42.14281971111097" lon="-1.231928861715969"><ele>344.66666666666663</ele><time>2026-03-31T08:17:49Z</time></trkpt><trkpt lat="42.14261670339129" lon="-1.231987344980502"><ele>346.3333333333333</ele><time>2026-03-31T08:17:50Z</time></trkpt><trkpt lat="42.142408611582965" lon="-1.232048548573354"><ele>348.0</ele><time>2026-03-31T08:17:51Z</time></trkpt><trkpt lat="42.14220849010635" lon="-1.2321052843038396"><ele>348.6666666666667</ele><time>2026-03-31T08:17:52Z</time></trkpt><trkpt lat="42.14200493923828" lon="-1.2321645358383158"><ele>349.33333333333337</ele><time>2026-03-31T08:17:53Z</time></trkpt><trkpt lat="42.141802415374784" lon="-1.2322202783480694"><ele>350.0</ele><time>2026-03-31T08:17:54Z</time></trkpt><trkpt lat="42.14159788154537" lon="-1.2322741039064813"><ele>347.33333333333337</ele><time>2026-03-31T08:17:55Z</time></trkpt><trkpt lat="42.14138872882522" lon="-1.2323272870888704"><ele>344.6666666666667</ele><time>2026-03-31T08:17:56Z</time></trkpt><trkpt lat="42.14118326726365" lon="-1.2323847079405263"><ele>342.0</ele><time>2026-03-31T08:17:57Z</time></trkpt><trkpt lat="42.14097662440594" lon="-1.23243910247128"><ele>342.0</ele><time>2026-03-31T08:17:58Z</time></trkpt><trkpt lat="42.14077571317492" lon="-1.2324926307319883"><ele>342.0</ele><time>2026-03-31T08:17:59Z</time></trkpt><trkpt lat="42.140567895038" lon="-1.2325475064764846"><ele>342.0</ele><time>2026-03-31T08:18:00Z</time></trkpt><trkpt lat="42.140366171016495" lon="-1.2326096266202962"><ele>342.3333333333333</ele><time>2026-03-31T08:18:01Z</time></trkpt><trkpt lat="42.14015756312006" lon="-1.2326685702575613"><ele>342.66666666666663</ele><time>2026-03-31T08:18:02Z</time></trkpt><trkpt lat="42.139949860726645" lon="-1.2327422601185423"><ele>343.0</ele><time>2026-03-31T08:18:03Z</time></trkpt><trkpt lat="42.13973644157791" lon="-1.2327786619272019"><ele>344.66666666666663</ele><time>2026-03-31T08:18:04Z</time></trkpt><trkpt lat="42.13952978443716" lon="-1.2328384593392343"><ele>346.3333333333333</ele><time>2026-03-31T08:18:05Z</time></trkpt><trkpt lat="42.13932333939292" lon="-1.2328988123352482"><ele>348.0</ele><time>2026-03-31T08:18:06Z</time></trkpt><trkpt lat="42.139126104278766" lon="-1.2329534019396196"><ele>348.3333333333333</ele><time>2026-03-31T08:18:07Z</time></trkpt><trkpt lat="42.13892004612013" lon="-1.233009530645164"><ele>348.66666666666663</ele><time>2026-03-31T08:18:08Z</time></trkpt><trkpt lat="42.138714508277864" lon="-1.2330652416787546"><ele>349.0</ele><time>2026-03-31T08:18:09Z</time></trkpt><trkpt lat="42.13851285318931" lon="-1.233125984468047"><ele>347.0</ele><time>2026-03-31T08:18:10Z</time></trkpt><trkpt lat="42.13830994836336" lon="-1.233178079827662"><ele>345.0</ele><time>2026-03-31T08:18:11Z</time></trkpt><trkpt lat="42.1380998962581" lon="-1.2332293897229931"><ele>343.0</ele><time>2026-03-31T08:18:12Z</time></trkpt><trkpt lat="42.137886631353915" lon="-1.2332839487034606"><ele>342.66666666666663</ele><time>2026-03-31T08:18:13Z</time></trkpt><trkpt lat="42.13767321172981" lon="-1.2333513855475666"><ele>342.3333333333333</ele><time>2026-03-31T08:18:14Z</time></trkpt><trkpt lat="42.13745746966393" lon="-1.2334150353591136"><ele>342.0</ele><time>2026-03-31T08:18:15Z</time></trkpt><trkpt lat="42.137246389627684" lon="-1.2334556946230109"><ele>342.0</ele><time>2026-03-31T08:18:16Z</time></trkpt><trkpt lat="42.13703618136465" lon="-1.2335178326595204"><ele>342.0</ele><time>2026-03-31T08:18:17Z</time></trkpt><trkpt lat="42.13682667963111" lon="-1.2335886108608842"><ele>342.0</ele><time>2026-03-31T08:18:18Z</time></trkpt><trkpt lat="42.13662076790006" lon="-1.2336450257881704"><ele>341.6666666666667</ele><time>2026-03-31T08:18:19Z</time></trkpt><trkpt lat="42.13641369344946" lon="-1.2337000294357123"><ele>341.33333333333337</ele><time>2026-03-31T08:18:20Z</time></trkpt><trkpt lat="42.136208461290224" lon="-1.2337529429412617"><ele>341.0</ele><time>2026-03-31T08:18:21Z</time></trkpt><trkpt lat="42.13600101391215" lon="-1.2338073740285123"><ele>341.0</ele><time>2026-03-31T08:18:22Z</time></trkpt><trkpt lat="42.135800632969314" lon="-1.233883634022663"><ele>341.0</ele><time>2026-03-31T08:18:23Z</time></trkpt><trkpt lat="42.1355943706668" lon="-1.2339399135664832"><ele>341.0</ele><time>2026-03-31T08:18:24Z</time></trkpt><trkpt lat="42.1353843679819" lon="-1.2339784537605945"><ele>340.6666666666667</ele><time>2026-03-31T08:18:25Z</time></trkpt><trkpt lat="42.135180975395386" lon="-1.2340424259448928"><ele>340.3333333333333</ele><time>2026-03-31T08:18:26Z</time></trkpt><trkpt lat="42.134976311207865" lon="-1.2340979899100526"><ele>340.0</ele><time>2026-03-31T08:18:27Z</time></trkpt><trkpt lat="42.134776841278196" lon="-1.2341515106439067"><ele>340.0</ele><time>2026-03-31T08:18:28Z</time></trkpt><trkpt lat="42.134583713606936" lon="-1.234199983633653"><ele>340.0</ele><time>2026-03-31T08:18:29Z</time></trkpt><trkpt lat="42.13438979926136" lon="-1.2342547192393787"><ele>340.0</ele><time>2026-03-31T08:18:30Z</time></trkpt><trkpt lat="42.13420435278907" lon="-1.2343080096696522"><ele>340.0</ele><time>2026-03-31T08:18:31Z</time></trkpt><trkpt lat="42.13402000460145" lon="-1.234349621484639"><ele>340.0</ele><time>2026-03-31T08:18:32Z</time></trkpt><trkpt lat="42.13382626397753" lon="-1.2343807208500495"><ele>340.0</ele><time>2026-03-31T08:18:33Z</time></trkpt><trkpt lat="42.1336410715053" lon="-1.2343968960748206"><ele>340.0</ele><time>2026-03-31T08:18:34Z</time></trkpt><trkpt lat="42.133461968340164" lon="-1.234420788464153"><ele>340.0</ele><time>2026-03-31T08:18:35Z</time></trkpt><trkpt lat="42.13329303920433" lon="-1.2344406416418798"><ele>340.0</ele><time>2026-03-31T08:18:36Z</time></trkpt><trkpt lat="42.13314372021872" lon="-1.234480932431245"><ele>339.75</ele><time>2026-03-31T08:18:37Z</time></trkpt><trkpt lat="42.1329947616361" lon="-1.2344867676641202"><ele>339.5</ele><time>2026-03-31T08:18:38Z</time></trkpt><trkpt lat="42.132865779738275" lon="-1.2345008909584558"><ele>339.25</ele><time>2026-03-31T08:18:39Z</time></trkpt><trkpt lat="42.13276815366026" lon="-1.2345358161743205"><ele>339.0</ele><time>2026-03-31T08:18:40Z</time></trkpt><trkpt lat="42.13269475727191" lon="-1.234561864428196"><ele>339.0</ele><time>2026-03-31T08:18:41Z</time></trkpt><trkpt lat="42.13264558603916" lon="-1.2346747960142708"><ele>339.0</ele><time>2026-03-31T08:18:42Z</time></trkpt><trkpt lat="42.13258896602052" lon="-1.2347257424546743"><ele>339.0</ele><time>2026-03-31T08:18:43Z</time></trkpt><trkpt lat="42.13253502397323" lon="-1.2347899009517618"><ele>339.0</ele><time>2026-03-31T08:18:44Z</time></trkpt><trkpt lat="42.13252345366768" lon="-1.2349424065406642"><ele>339.0</ele><time>2026-03-31T08:18:45Z</time></trkpt><trkpt lat="42.13251225007909" lon="-1.2351078156105086"><ele>338.6666666666667</ele><time>2026-03-31T08:18:46Z</time></trkpt><trkpt lat="42.13252186460996" lon="-1.235316440285623"><ele>338.33333333333337</ele><time>2026-03-31T08:18:47Z</time></trkpt><trkpt lat="42.132532876218406" lon="-1.235539169932694"><ele>338.0</ele><time>2026-03-31T08:18:48Z</time></trkpt><trkpt lat="42.13253480686843" lon="-1.23577166582285"><ele>338.0</ele><time>2026-03-31T08:18:49Z</time></trkpt><trkpt lat="42.13253474328892" lon="-1.2360242314990169"><ele>338.0</ele><time>2026-03-31T08:18:50Z</time></trkpt><trkpt lat="42.132533297525725" lon="-1.2362772489099927"><ele>338.0</ele><time>2026-03-31T08:18:51Z</time></trkpt><trkpt lat="42.132531256717904" lon="-1.2365353704493052"><ele>337.6666666666667</ele><time>2026-03-31T08:18:52Z</time></trkpt><trkpt lat="42.132528480488276" lon="-1.2368074733132677"><ele>337.3333333333333</ele><time>2026-03-31T08:18:53Z</time></trkpt><trkpt lat="42.13252848763956" lon="-1.2370794346981475"><ele>337.0</ele><time>2026-03-31T08:18:54Z</time></trkpt><trkpt lat="42.13253042650733" lon="-1.237351447875569"><ele>337.0</ele><time>2026-03-31T08:18:55Z</time></trkpt><trkpt lat="42.13252920943163" lon="-1.237627259269693"><ele>337.0</ele><time>2026-03-31T08:18:56Z</time></trkpt><trkpt lat="42.132527351741025" lon="-1.237900164086829"><ele>337.0</ele><time>2026-03-31T08:18:57Z</time></trkpt><trkpt lat="42.13252710582534" lon="-1.238170202923239"><ele>336.0</ele><time>2026-03-31T08:18:58Z</time></trkpt><trkpt lat="42.13252778025534" lon="-1.2384391097084049"><ele>335.0</ele><time>2026-03-31T08:18:59Z</time></trkpt><trkpt lat="42.1325275521615" lon="-1.2387027770640702"><ele>334.0</ele><time>2026-03-31T08:19:00Z</time></trkpt><trkpt lat="42.13253355475511" lon="-1.238962575440074"><ele>333.66666666666663</ele><time>2026-03-31T08:19:01Z</time></trkpt><trkpt lat="42.13254053945869" lon="-1.2392204248739287"><ele>333.3333333333333</ele><time>2026-03-31T08:19:02Z</time></trkpt><trkpt lat="42.13252427562724" lon="-1.2395393732100153"><ele>333.0</ele><time>2026-03-31T08:19:03Z</time></trkpt><trkpt lat="42.13252566063251" lon="-1.239815640723431"><ele>333.0</ele><time>2026-03-31T08:19:04Z</time></trkpt><trkpt lat="42.132526445754266" lon="-1.24010057910929"><ele>333.0</ele><time>2026-03-31T08:19:05Z</time></trkpt><trkpt lat="42.13252440352723" lon="-1.2403850096208449"><ele>333.0</ele><time>2026-03-31T08:19:06Z</time></trkpt><trkpt lat="42.13252114118984" lon="-1.240670420792106"><ele>331.6666666666667</ele><time>2026-03-31T08:19:07Z</time></trkpt><trkpt lat="42.13251729837268" lon="-1.2409577900343691"><ele>330.33333333333337</ele><time>2026-03-31T08:19:08Z</time></trkpt><trkpt lat="42.1325153934737" lon="-1.2412212137974672"><ele>329.0</ele><time>2026-03-31T08:19:09Z</time></trkpt><trkpt lat="42.13251292868627" lon="-1.2414962578385993"><ele>329.0</ele><time>2026-03-31T08:19:10Z</time></trkpt><trkpt lat="42.132512330291334" lon="-1.2417701408228992"><ele>329.0</ele><time>2026-03-31T08:19:11Z</time></trkpt><trkpt lat="42.132514308231286" lon="-1.2420466682699833"><ele>329.0</ele><time>2026-03-31T08:19:12Z</time></trkpt><trkpt lat="42.1325144009647" lon="-1.2423239019947185"><ele>328.6666666666667</ele><time>2026-03-31T08:19:13Z</time></trkpt><trkpt lat="42.13250761469389" lon="-1.2425995146404938"><ele>328.3333333333333</ele><time>2026-03-31T08:19:14Z</time></trkpt><trkpt lat="42.13250652664595" lon="-1.2428853983793706"><ele>328.0</ele><time>2026-03-31T08:19:15Z</time></trkpt><trkpt lat="42.13251133371393" lon="-1.2431753353881363"><ele>327.0</ele><time>2026-03-31T08:19:16Z</time></trkpt><trkpt lat="42.13251197002472" lon="-1.243471554849403"><ele>326.0</ele><time>2026-03-31T08:19:17Z</time></trkpt><trkpt lat="42.13250986290758" lon="-1.2437743608049383"><ele>325.0</ele><time>2026-03-31T08:19:18Z</time></trkpt><trkpt lat="42.1325049724746" lon="-1.2440786293508324"><ele>325.0</ele><time>2026-03-31T08:19:19Z</time></trkpt><trkpt lat="42.13250279374549" lon="-1.2443771018417733"><ele>325.0</ele><time>2026-03-31T08:19:20Z</time></trkpt><trkpt lat="42.132502202029784" lon="-1.2446735416642634"><ele>325.0</ele><time>2026-03-31T08:19:21Z</time></trkpt><trkpt lat="42.1325040067779" lon="-1.2449676834290457"><ele>325.0</ele><time>2026-03-31T08:19:22Z</time></trkpt><trkpt lat="42.1325077632839" lon="-1.2452647083707993"><ele>325.0</ele><time>2026-03-31T08:19:23Z</time></trkpt><trkpt lat="42.13250998184319" lon="-1.24555524085904"><ele>325.0</ele><time>2026-03-31T08:19:24Z</time></trkpt><trkpt lat="42.13250558343876" lon="-1.245845726908867"><ele>325.0</ele><time>2026-03-31T08:19:25Z</time></trkpt><trkpt lat="42.13250319986682" lon="-1.2461368398416743"><ele>325.0</ele><time>2026-03-31T08:19:26Z</time></trkpt><trkpt lat="42.132502008632336" lon="-1.2464276881342884"><ele>325.0</ele><time>2026-03-31T08:19:27Z</time></trkpt><trkpt lat="42.13250098651163" lon="-1.2467193209360214"><ele>325.3333333333333</ele><time>2026-03-31T08:19:28Z</time></trkpt><trkpt lat="42.13250115652038" lon="-1.2470094368494522"><ele>325.6666666666667</ele><time>2026-03-31T08:19:29Z</time></trkpt><trkpt lat="42.13249900493088" lon="-1.24730044785581"><ele>326.0</ele><time>2026-03-31T08:19:30Z</time></trkpt><trkpt lat="42.13249996174002" lon="-1.247590557253355"><ele>326.33333333333337</ele><time>2026-03-31T08:19:31Z</time></trkpt><trkpt lat="42.13250126979767" lon="-1.2478837049362461"><ele>326.6666666666667</ele><time>2026-03-31T08:19:32Z</time></trkpt><trkpt lat="42.132500705279824" lon="-1.248182594919662"><ele>327.0</ele><time>2026-03-31T08:19:33Z</time></trkpt><trkpt lat="42.13249959005185" lon="-1.2484803312774422"><ele>327.0</ele><time>2026-03-31T08:19:34Z</time></trkpt><trkpt lat="42.132499213287986" lon="-1.2487766596293144"><ele>327.0</ele><time>2026-03-31T08:19:35Z</time></trkpt><trkpt lat="42.132498440467565" lon="-1.2490707189507444"><ele>327.0</ele><time>2026-03-31T08:19:36Z</time></trkpt><trkpt lat="42.13249588267109" lon="-1.2493667531359254"><ele>327.0</ele><time>2026-03-31T08:19:37Z</time></trkpt><trkpt lat="42.132492486505356" lon="-1.2496633367956127"><ele>327.0</ele><time>2026-03-31T08:19:38Z</time></trkpt><trkpt lat="42.13249054106851" lon="-1.249963414306192"><ele>327.0</ele><time>2026-03-31T08:19:39Z</time></trkpt><trkpt lat="42.13249095265576" lon="-1.2502617018641715"><ele>327.5</ele><time>2026-03-31T08:19:40Z</time></trkpt><trkpt lat="42.132488235938084" lon="-1.2505623627948645"><ele>328.0</ele><time>2026-03-31T08:19:41Z</time></trkpt><trkpt lat="42.132486304326626" lon="-1.250868501997106"><ele>328.5</ele><time>2026-03-31T08:19:42Z</time></trkpt><trkpt lat="42.13248536461277" lon="-1.2511754642014834"><ele>329.0</ele><time>2026-03-31T08:19:43Z</time></trkpt><trkpt lat="42.132487791608476" lon="-1.2514842254370477"><ele>329.0</ele><time>2026-03-31T08:19:44Z</time></trkpt><trkpt lat="42.13249172970089" lon="-1.2517896871964191"><ele>329.0</ele><time>2026-03-31T08:19:45Z</time></trkpt><trkpt lat="42.13249327972141" lon="-1.252086752981551"><ele>329.0</ele><time>2026-03-31T08:19:46Z</time></trkpt><trkpt lat="42.13249135241735" lon="-1.2523893366760217"><ele>328.6666666666667</ele><time>2026-03-31T08:19:47Z</time></trkpt><trkpt lat="42.1324850600486" lon="-1.2526760870022418"><ele>328.3333333333333</ele><time>2026-03-31T08:19:48Z</time></trkpt><trkpt lat="42.13248468413578" lon="-1.252972123048238"><ele>328.0</ele><time>2026-03-31T08:19:49Z</time></trkpt><trkpt lat="42.13248396672773" lon="-1.2532713414671683"><ele>326.66666666666663</ele><time>2026-03-31T08:19:50Z</time></trkpt><trkpt lat="42.13248641955735" lon="-1.25356899148456"><ele>325.3333333333333</ele><time>2026-03-31T08:19:51Z</time></trkpt><trkpt lat="42.13248343609685" lon="-1.2538681380249432"><ele>324.0</ele><time>2026-03-31T08:19:52Z</time></trkpt><trkpt lat="42.13248292992715" lon="-1.2541709154558545"><ele>323.5</ele><time>2026-03-31T08:19:53Z</time></trkpt><trkpt lat="42.132483439167956" lon="-1.2544759943782502"><ele>323.0</ele><time>2026-03-31T08:19:54Z</time></trkpt><trkpt lat="42.132483025764934" lon="-1.2547835063072303"><ele>322.5</ele><time>2026-03-31T08:19:55Z</time></trkpt><trkpt lat="42.13247887247605" lon="-1.2550978423285188"><ele>322.0</ele><time>2026-03-31T08:19:56Z</time></trkpt><trkpt lat="42.13247390673428" lon="-1.2554019046325555"><ele>322.0</ele><time>2026-03-31T08:19:57Z</time></trkpt><trkpt lat="42.13247020013159" lon="-1.2557013468394043"><ele>322.0</ele><time>2026-03-31T08:19:58Z</time></trkpt><trkpt lat="42.13247023684822" lon="-1.2559971753182955"><ele>322.0</ele><time>2026-03-31T08:19:59Z</time></trkpt><trkpt lat="42.13247040117131" lon="-1.2563057630286107"><ele>321.66666666666663</ele><time>2026-03-31T08:20:00Z</time></trkpt><trkpt lat="42.13246640338841" lon="-1.256609276136999"><ele>321.3333333333333</ele><time>2026-03-31T08:20:01Z</time></trkpt><trkpt lat="42.1324667799301" lon="-1.2569106534319694"><ele>321.0</ele><time>2026-03-31T08:20:02Z</time></trkpt><trkpt lat="42.132463954306715" lon="-1.2572152712626465"><ele>321.0</ele><time>2026-03-31T08:20:03Z</time></trkpt><trkpt lat="42.13246383178379" lon="-1.2575208937745606"><ele>321.0</ele><time>2026-03-31T08:20:04Z</time></trkpt><trkpt lat="42.132464539223754" lon="-1.2578212063351633"><ele>321.0</ele><time>2026-03-31T08:20:05Z</time></trkpt><trkpt lat="42.13246532578886" lon="-1.2581236902723816"><ele>321.5</ele><time>2026-03-31T08:20:06Z</time></trkpt><trkpt lat="42.132460680626046" lon="-1.2584314879669651"><ele>322.0</ele><time>2026-03-31T08:20:07Z</time></trkpt><trkpt lat="42.132457664268856" lon="-1.2587433537256996"><ele>322.0</ele><time>2026-03-31T08:20:08Z</time></trkpt><trkpt lat="42.132457156114654" lon="-1.2590554679104629"><ele>322.0</ele><time>2026-03-31T08:20:09Z</time></trkpt><trkpt lat="42.13245410502542" lon="-1.259373412856869"><ele>322.0</ele><time>2026-03-31T08:20:10Z</time></trkpt><trkpt lat="42.13245026838656" lon="-1.2596851493167518"><ele>322.0</ele><time>2026-03-31T08:20:11Z</time></trkpt><trkpt lat="42.13245421715042" lon="-1.260000010056452"><ele>322.0</ele><time>2026-03-31T08:20:12Z</time></trkpt><trkpt lat="42.13246099356777" lon="-1.2603134349342586"><ele>322.0</ele><time>2026-03-31T08:20:13Z</time></trkpt><trkpt lat="42.13245751371805" lon="-1.260629150222172"><ele>322.0</ele><time>2026-03-31T08:20:14Z</time></trkpt><trkpt lat="42.13245102586968" lon="-1.2609423422542654"><ele>322.0</ele><time>2026-03-31T08:20:15Z</time></trkpt><trkpt lat="42.132447409626934" lon="-1.2612536328210675"><ele>322.0</ele><time>2026-03-31T08:20:16Z</time></trkpt><trkpt lat="42.132445228693264" lon="-1.2615597904166176"><ele>322.0</ele><time>2026-03-31T08:20:17Z</time></trkpt><trkpt lat="42.132445585678965" lon="-1.2618678403561971"><ele>322.0</ele><time>2026-03-31T08:20:18Z</time></trkpt><trkpt lat="42.13244768090873" lon="-1.2621672432300408"><ele>322.0</ele><time>2026-03-31T08:20:19Z</time></trkpt><trkpt lat="42.13244812858552" lon="-1.262464307359385"><ele>322.0</ele><time>2026-03-31T08:20:20Z</time></trkpt><trkpt lat="42.132447393020314" lon="-1.2627619435723534"><ele>321.66666666666663</ele><time>2026-03-31T08:20:21Z</time></trkpt><trkpt lat="42.13244613230672" lon="-1.2630598441979968"><ele>321.3333333333333</ele><time>2026-03-31T08:20:22Z</time></trkpt><trkpt lat="42.1324447884259" lon="-1.2633620206431837"><ele>321.0</ele><time>2026-03-31T08:20:23Z</time></trkpt><trkpt lat="42.13244425230019" lon="-1.263662516589055"><ele>321.0</ele><time>2026-03-31T08:20:24Z</time></trkpt><trkpt lat="42.132443036975275" lon="-1.2639613960080889"><ele>321.0</ele><time>2026-03-31T08:20:25Z</time></trkpt><trkpt lat="42.132443441076816" lon="-1.2642670372938847"><ele>321.0</ele><time>2026-03-31T08:20:26Z</time></trkpt><trkpt lat="42.13245016656836" lon="-1.2645828838302589"><ele>321.0</ele><time>2026-03-31T08:20:27Z</time></trkpt><trkpt lat="42.132448424453855" lon="-1.2649109521305355"><ele>321.0</ele><time>2026-03-31T08:20:28Z</time></trkpt><trkpt lat="42.13244208971243" lon="-1.2652391146338753"><ele>321.0</ele><time>2026-03-31T08:20:29Z</time></trkpt><trkpt lat="42.13243885168547" lon="-1.2655622552670986"><ele>321.0</ele><time>2026-03-31T08:20:30Z</time></trkpt><trkpt lat="42.13243928383551" lon="-1.2658791102696474"><ele>321.0</ele><time>2026-03-31T08:20:31Z</time></trkpt><trkpt lat="42.13243946472097" lon="-1.2661948525035405"><ele>321.0</ele><time>2026-03-31T08:20:32Z</time></trkpt><trkpt lat="42.13244029090522" lon="-1.2665131205257183"><ele>321.5</ele><time>2026-03-31T08:20:33Z</time></trkpt><trkpt lat="42.13243769696495" lon="-1.2668350994015332"><ele>322.0</ele><time>2026-03-31T08:20:34Z</time></trkpt><trkpt lat="42.1324349910248" lon="-1.2671536036392121"><ele>323.0</ele><time>2026-03-31T08:20:35Z</time></trkpt><trkpt lat="42.13243508046893" lon="-1.267467648591994"><ele>324.0</ele><time>2026-03-31T08:20:36Z</time></trkpt><trkpt lat="42.13243455116268" lon="-1.267783395968365"><ele>324.0</ele><time>2026-03-31T08:20:37Z</time></trkpt><trkpt lat="42.132434063425094" lon="-1.2680942110015114"><ele>324.0</ele><time>2026-03-31T08:20:38Z</time></trkpt><trkpt lat="42.132435870585844" lon="-1.2684015850742627"><ele>325.5</ele><time>2026-03-31T08:20:39Z</time></trkpt><trkpt lat="42.13243475555453" lon="-1.2687048309481452"><ele>327.0</ele><time>2026-03-31T08:20:40Z</time></trkpt><trkpt lat="42.13243091782351" lon="-1.2690088805012454"><ele>327.0</ele><time>2026-03-31T08:20:41Z</time></trkpt><trkpt lat="42.1324289784678" lon="-1.2693131479063793"><ele>327.0</ele><time>2026-03-31T08:20:42Z</time></trkpt><trkpt lat="42.132428583710556" lon="-1.2696129533655294"><ele>327.0</ele><time>2026-03-31T08:20:43Z</time></trkpt><trkpt lat="42.132425696907085" lon="-1.2699161092006994"><ele>327.0</ele><time>2026-03-31T08:20:44Z</time></trkpt><trkpt lat="42.13242730755768" lon="-1.2702353148026315"><ele>327.0</ele><time>2026-03-31T08:20:45Z</time></trkpt><trkpt lat="42.132431432469055" lon="-1.2705575953572663"><ele>327.5</ele><time>2026-03-31T08:20:46Z</time></trkpt><trkpt lat="42.13242964258388" lon="-1.2708762850740916"><ele>328.0</ele><time>2026-03-31T08:20:47Z</time></trkpt><trkpt lat="42.132426770418256" lon="-1.2711850480460132"><ele>328.5</ele><time>2026-03-31T08:20:48Z</time></trkpt><trkpt lat="42.13242584368386" lon="-1.2714865651170142"><ele>329.0</ele><time>2026-03-31T08:20:49Z</time></trkpt><trkpt lat="42.13242434208038" lon="-1.2717981244065217"><ele>329.0</ele><time>2026-03-31T08:20:50Z</time></trkpt><trkpt lat="42.132424538801054" lon="-1.2721063616417496"><ele>329.0</ele><time>2026-03-31T08:20:51Z</time></trkpt><trkpt lat="42.132426578632014" lon="-1.272416726882118"><ele>331.5</ele><time>2026-03-31T08:20:52Z</time></trkpt><trkpt lat="42.13242945446657" lon="-1.2727219255121136"><ele>334.0</ele><time>2026-03-31T08:20:53Z</time></trkpt><trkpt lat="42.132426711546216" lon="-1.273023615805855"><ele>334.0</ele><time>2026-03-31T08:20:54Z</time></trkpt><trkpt lat="42.13242418532422" lon="-1.2733280430625111"><ele>334.0</ele><time>2026-03-31T08:20:55Z</time></trkpt><trkpt lat="42.13242459990589" lon="-1.27363024356542"><ele>334.0</ele><time>2026-03-31T08:20:56Z</time></trkpt><trkpt lat="42.132425112999826" lon="-1.273934625886833"><ele>334.0</ele><time>2026-03-31T08:20:57Z</time></trkpt><trkpt lat="42.132422154161894" lon="-1.274239110953011"><ele>334.3333333333333</ele><time>2026-03-31T08:20:58Z</time></trkpt><trkpt lat="42.13241840130277" lon="-1.2745420551126498"><ele>334.6666666666667</ele><time>2026-03-31T08:20:59Z</time></trkpt><trkpt lat="42.132416963039944" lon="-1.2748449381497065"><ele>335.0</ele><time>2026-03-31T08:21:00Z</time></trkpt><trkpt lat="42.13241690004319" lon="-1.2751544456612662"><ele>335.0</ele><time>2026-03-31T08:21:01Z</time></trkpt><trkpt lat="42.13241715914439" lon="-1.2754615057022127"><ele>335.0</ele><time>2026-03-31T08:21:02Z</time></trkpt><trkpt lat="42.13241503784053" lon="-1.2757705759768978"><ele>333.5</ele><time>2026-03-31T08:21:03Z</time></trkpt><trkpt lat="42.132412392362156" lon="-1.276075921412194"><ele>332.0</ele><time>2026-03-31T08:21:04Z</time></trkpt><trkpt lat="42.13241424701344" lon="-1.2763838042966753"><ele>331.0</ele><time>2026-03-31T08:21:05Z</time></trkpt><trkpt lat="42.13241487612633" lon="-1.2766961513722235"><ele>330.0</ele><time>2026-03-31T08:21:06Z</time></trkpt><trkpt lat="42.13241172558097" lon="-1.2770064876507636"><ele>329.0</ele><time>2026-03-31T08:21:07Z</time></trkpt><trkpt lat="42.132410779730364" lon="-1.27731519259349"><ele>328.0</ele><time>2026-03-31T08:21:08Z</time></trkpt><trkpt lat="42.132413574813654" lon="-1.277621143887494"><ele>328.0</ele><time>2026-03-31T08:21:09Z</time></trkpt><trkpt lat="42.13241615895438" lon="-1.2779263355791286"><ele>328.0</ele><time>2026-03-31T08:21:10Z</time></trkpt><trkpt lat="42.13241602871099" lon="-1.2782274282584367"><ele>327.3333333333333</ele><time>2026-03-31T08:21:11Z</time></trkpt><trkpt lat="42.132413703060884" lon="-1.278525659353423"><ele>326.6666666666667</ele><time>2026-03-31T08:21:12Z</time></trkpt><trkpt lat="42.13240867252372" lon="-1.2788239826965415"><ele>326.0</ele><time>2026-03-31T08:21:13Z</time></trkpt><trkpt lat="42.13240403171483" lon="-1.2791233417585937"><ele>325.6666666666667</ele><time>2026-03-31T08:21:14Z</time></trkpt><trkpt lat="42.13240382052689" lon="-1.2794213987101135"><ele>325.3333333333333</ele><time>2026-03-31T08:21:15Z</time></trkpt><trkpt lat="42.13240465215432" lon="-1.279720068406951"><ele>325.0</ele><time>2026-03-31T08:21:16Z</time></trkpt><trkpt lat="42.13240410807226" lon="-1.2800164108663645"><ele>325.0</ele><time>2026-03-31T08:21:17Z</time></trkpt><trkpt lat="42.132404399393565" lon="-1.2803140369966064"><ele>325.0</ele><time>2026-03-31T08:21:18Z</time></trkpt><trkpt lat="42.13240470146686" lon="-1.2806102689937637"><ele>325.0</ele><time>2026-03-31T08:21:19Z</time></trkpt><trkpt lat="42.13240120501635" lon="-1.2809037783455544"><ele>325.5</ele><time>2026-03-31T08:21:20Z</time></trkpt><trkpt lat="42.13239980846669" lon="-1.2812072938947436"><ele>326.0</ele><time>2026-03-31T08:21:21Z</time></trkpt><trkpt lat="42.132404730742316" lon="-1.2815202540963853"><ele>327.0</ele><time>2026-03-31T08:21:22Z</time></trkpt><trkpt lat="42.132408632098645" lon="-1.2818468102080527"><ele>328.0</ele><time>2026-03-31T08:21:23Z</time></trkpt><trkpt lat="42.13240450948283" lon="-1.2821740856359498"><ele>327.5</ele><time>2026-03-31T08:21:24Z</time></trkpt><trkpt lat="42.13240265397953" lon="-1.282494295613586"><ele>327.0</ele><time>2026-03-31T08:21:25Z</time></trkpt><trkpt lat="42.13240008549501" lon="-1.28280828869921"><ele>326.0</ele><time>2026-03-31T08:21:26Z</time></trkpt><trkpt lat="42.1323963689224" lon="-1.2831133884106425"><ele>325.0</ele><time>2026-03-31T08:21:27Z</time></trkpt><trkpt lat="42.13239673164985" lon="-1.2834222063373293"><ele>325.0</ele><time>2026-03-31T08:21:28Z</time></trkpt><trkpt lat="42.132398624432064" lon="-1.2837230283971428"><ele>325.0</ele><time>2026-03-31T08:21:29Z</time></trkpt><trkpt lat="42.132397376674966" lon="-1.2840267235106235"><ele>325.0</ele><time>2026-03-31T08:21:30Z</time></trkpt><trkpt lat="42.13239698858285" lon="-1.2843292603182281"><ele>325.0</ele><time>2026-03-31T08:21:31Z</time></trkpt><trkpt lat="42.13239842347865" lon="-1.2846290948551353"><ele>325.0</ele><time>2026-03-31T08:21:32Z</time></trkpt><trkpt lat="42.132397253789364" lon="-1.284924922510648"><ele>325.0</ele><time>2026-03-31T08:21:33Z</time></trkpt><trkpt lat="42.132396561473385" lon="-1.2852224706132884"><ele>325.0</ele><time>2026-03-31T08:21:34Z</time></trkpt><trkpt lat="42.132396044867214" lon="-1.2855328121497067"><ele>325.0</ele><time>2026-03-31T08:21:35Z</time></trkpt><trkpt lat="42.132393894859" lon="-1.2858465311640652"><ele>325.0</ele><time>2026-03-31T08:21:36Z</time></trkpt><trkpt lat="42.13239453461038" lon="-1.2861572420840097"><ele>325.0</ele><time>2026-03-31T08:21:37Z</time></trkpt><trkpt lat="42.13239446175181" lon="-1.2864594761107722"><ele>325.0</ele><time>2026-03-31T08:21:38Z</time></trkpt><trkpt lat="42.13239194698006" lon="-1.286759073226978"><ele>325.0</ele><time>2026-03-31T08:21:39Z</time></trkpt><trkpt lat="42.132389818876156" lon="-1.28706203337046"><ele>325.0</ele><time>2026-03-31T08:21:40Z</time></trkpt><trkpt lat="42.13239141055803" lon="-1.2873668968868441"><ele>325.5</ele><time>2026-03-31T08:21:41Z</time></trkpt><trkpt lat="42.132394320242234" lon="-1.2876699326237508"><ele>326.0</ele><time>2026-03-31T08:21:42Z</time></trkpt><trkpt lat="42.13239187093287" lon="-1.28797520820967"><ele>325.5</ele><time>2026-03-31T08:21:43Z</time></trkpt><trkpt lat="42.13238960959097" lon="-1.2882814377794212"><ele>325.0</ele><time>2026-03-31T08:21:44Z</time></trkpt><trkpt lat="42.13238849021757" lon="-1.2885931893168696"><ele>325.0</ele><time>2026-03-31T08:21:45Z</time></trkpt><trkpt lat="42.132384593819395" lon="-1.28891004756454"><ele>325.0</ele><time>2026-03-31T08:21:46Z</time></trkpt><trkpt lat="42.13237904994113" lon="-1.2892231388245052"><ele>323.5</ele><time>2026-03-31T08:21:47Z</time></trkpt><trkpt lat="42.132378613534634" lon="-1.289539867760003"><ele>322.0</ele><time>2026-03-31T08:21:48Z</time></trkpt><trkpt lat="42.132383981687994" lon="-1.2898540003649885"><ele>321.5</ele><time>2026-03-31T08:21:49Z</time></trkpt><trkpt lat="42.13238532186516" lon="-1.290168546562717"><ele>321.0</ele><time>2026-03-31T08:21:50Z</time></trkpt><trkpt lat="42.132382843755835" lon="-1.2904852157122095"><ele>320.5</ele><time>2026-03-31T08:21:51Z</time></trkpt><trkpt lat="42.132381502656614" lon="-1.290806356292647"><ele>320.0</ele><time>2026-03-31T08:21:52Z</time></trkpt><trkpt lat="42.13238376811944" lon="-1.2911228901140304"><ele>319.5</ele><time>2026-03-31T08:21:53Z</time></trkpt><trkpt lat="42.13238543480356" lon="-1.291444062992536"><ele>319.0</ele><time>2026-03-31T08:21:54Z</time></trkpt><trkpt lat="42.13238716671749" lon="-1.2917615327708467"><ele>319.0</ele><time>2026-03-31T08:21:55Z</time></trkpt><trkpt lat="42.13238767762039" lon="-1.2920826560346161"><ele>319.0</ele><time>2026-03-31T08:21:56Z</time></trkpt><trkpt lat="42.13238674205553" lon="-1.2923949172139555"><ele>318.5</ele><time>2026-03-31T08:21:57Z</time></trkpt><trkpt lat="42.13238995242769" lon="-1.2927097685790716"><ele>318.0</ele><time>2026-03-31T08:21:58Z</time></trkpt><trkpt lat="42.13239223151499" lon="-1.2930235476450729"><ele>318.0</ele><time>2026-03-31T08:21:59Z</time></trkpt><trkpt lat="42.132391574362224" lon="-1.2933309716063266"><ele>318.0</ele><time>2026-03-31T08:22:00Z</time></trkpt><trkpt lat="42.132392384899184" lon="-1.2936376757138655"><ele>318.0</ele><time>2026-03-31T08:22:01Z</time></trkpt><trkpt lat="42.13238970665844" lon="-1.2939469775759405"><ele>318.0</ele><time>2026-03-31T08:22:02Z</time></trkpt><trkpt lat="42.13238887400771" lon="-1.2942586013680564"><ele>318.0</ele><time>2026-03-31T08:22:03Z</time></trkpt><trkpt lat="42.13239096757244" lon="-1.2945674935821172"><ele>318.0</ele><time>2026-03-31T08:22:04Z</time></trkpt><trkpt lat="42.13238978521228" lon="-1.2948773508415936"><ele>318.0</ele><time>2026-03-31T08:22:05Z</time></trkpt><trkpt lat="42.1323899881524" lon="-1.2951895009188108"><ele>318.0</ele><time>2026-03-31T08:22:06Z</time></trkpt><trkpt lat="42.13238950689267" lon="-1.2955002925726504"><ele>318.5</ele><time>2026-03-31T08:22:07Z</time></trkpt><trkpt lat="42.13238607618257" lon="-1.2958122488374346"><ele>319.0</ele><time>2026-03-31T08:22:08Z</time></trkpt><trkpt lat="42.13238344290153" lon="-1.296118890594777"><ele>319.0</ele><time>2026-03-31T08:22:09Z</time></trkpt><trkpt lat="42.132382233359415" lon="-1.2964304481569007"><ele>319.0</ele><time>2026-03-31T08:22:10Z</time></trkpt><trkpt lat="42.13237876004188" lon="-1.2967402653270481"><ele>319.0</ele><time>2026-03-31T08:22:11Z</time></trkpt><trkpt lat="42.132375003042455" lon="-1.2970416218984309"><ele>319.0</ele><time>2026-03-31T08:22:12Z</time></trkpt><trkpt lat="42.132372292391445" lon="-1.2973397009222953"><ele>319.0</ele><time>2026-03-31T08:22:13Z</time></trkpt><trkpt lat="42.13236864760629" lon="-1.2976368069256516"><ele>319.0</ele><time>2026-03-31T08:22:14Z</time></trkpt><trkpt lat="42.132361928448994" lon="-1.2979620220184886"><ele>319.0</ele><time>2026-03-31T08:22:15Z</time></trkpt><trkpt lat="42.13235690736275" lon="-1.2982699453083753"><ele>319.5</ele><time>2026-03-31T08:22:16Z</time></trkpt><trkpt lat="42.132350880836505" lon="-1.2985768249465244"><ele>320.0</ele><time>2026-03-31T08:22:17Z</time></trkpt><trkpt lat="42.13234750524673" lon="-1.2988821923929097"><ele>320.5</ele><time>2026-03-31T08:22:18Z</time></trkpt><trkpt lat="42.13234378591248" lon="-1.2991895876864892"><ele>321.0</ele><time>2026-03-31T08:22:19Z</time></trkpt><trkpt lat="42.13233827211647" lon="-1.2994963258300407"><ele>321.0</ele><time>2026-03-31T08:22:20Z</time></trkpt><trkpt lat="42.13233305066904" lon="-1.2998058297995427"><ele>321.0</ele><time>2026-03-31T08:22:21Z</time></trkpt><trkpt lat="42.132327499047896" lon="-1.3001179760321016"><ele>321.0</ele><time>2026-03-31T08:22:22Z</time></trkpt><trkpt lat="42.13231990351675" lon="-1.3004264934621523"><ele>321.0</ele><time>2026-03-31T08:22:23Z</time></trkpt><trkpt lat="42.13231219295162" lon="-1.300732080367138"><ele>321.0</ele><time>2026-03-31T08:22:24Z</time></trkpt><trkpt lat="42.13230708481404" lon="-1.3010360842725939"><ele>321.0</ele><time>2026-03-31T08:22:25Z</time></trkpt><trkpt lat="42.13230340731452" lon="-1.3013353581887237"><ele>321.0</ele><time>2026-03-31T08:22:26Z</time></trkpt><trkpt lat="42.13229583722112" lon="-1.301630320540964"><ele>321.0</ele><time>2026-03-31T08:22:27Z</time></trkpt><trkpt lat="42.13228849176001" lon="-1.3019278455982146"><ele>321.0</ele><time>2026-03-31T08:22:28Z</time></trkpt><trkpt lat="42.13228344099501" lon="-1.3022194419609439"><ele>321.0</ele><time>2026-03-31T08:22:29Z</time></trkpt><trkpt lat="42.132277576529255" lon="-1.3025078007334978"><ele>321.3333333333333</ele><time>2026-03-31T08:22:30Z</time></trkpt><trkpt lat="42.13227275618827" lon="-1.3028028286448385"><ele>321.66666666666663</ele><time>2026-03-31T08:22:31Z</time></trkpt><trkpt lat="42.13226924197869" lon="-1.3030992268043424"><ele>322.0</ele><time>2026-03-31T08:22:32Z</time></trkpt><trkpt lat="42.132264088469576" lon="-1.3033906449228267"><ele>322.66666666666663</ele><time>2026-03-31T08:22:33Z</time></trkpt><trkpt lat="42.13225785177996" lon="-1.303676321316822"><ele>323.3333333333333</ele><time>2026-03-31T08:22:34Z</time></trkpt><trkpt lat="42.13225247483276" lon="-1.3039544406112924"><ele>324.0</ele><time>2026-03-31T08:22:35Z</time></trkpt><trkpt lat="42.132249710021085" lon="-1.304233661914818"><ele>324.0</ele><time>2026-03-31T08:22:36Z</time></trkpt><trkpt lat="42.132251173852325" lon="-1.304490741559016"><ele>324.0</ele><time>2026-03-31T08:22:37Z</time></trkpt><trkpt lat="42.13224633313586" lon="-1.3047304047100161"><ele>324.0</ele><time>2026-03-31T08:22:38Z</time></trkpt><trkpt lat="42.13224169543893" lon="-1.304965461269227"><ele>324.3333333333333</ele><time>2026-03-31T08:22:39Z</time></trkpt><trkpt lat="42.13223979287365" lon="-1.305181032738893"><ele>324.66666666666663</ele><time>2026-03-31T08:22:40Z</time></trkpt><trkpt lat="42.132243440654385" lon="-1.305378430668693"><ele>325.0</ele><time>2026-03-31T08:22:41Z</time></trkpt><trkpt lat="42.13225220791062" lon="-1.305613938833337"><ele>325.0</ele><time>2026-03-31T08:22:42Z</time></trkpt><trkpt lat="42.132268237023695" lon="-1.3058047918448863"><ele>325.0</ele><time>2026-03-31T08:22:43Z</time></trkpt><trkpt lat="42.13230257972855" lon="-1.305975275403721"><ele>325.0</ele><time>2026-03-31T08:22:44Z</time></trkpt><trkpt lat="42.13236422438583" lon="-1.3061171726678074"><ele>325.0</ele><time>2026-03-31T08:22:45Z</time></trkpt><trkpt lat="42.13244074696913" lon="-1.306232219423214"><ele>325.0</ele><time>2026-03-31T08:22:46Z</time></trkpt><trkpt lat="42.13247034691664" lon="-1.3063673834760718"><ele>325.0</ele><time>2026-03-31T08:22:47Z</time></trkpt><trkpt lat="42.13243079799544" lon="-1.3065105537650044"><ele>325.0</ele><time>2026-03-31T08:22:48Z</time></trkpt><trkpt lat="42.13234104496823" lon="-1.3066302893309318"><ele>325.0</ele><time>2026-03-31T08:22:49Z</time></trkpt><trkpt lat="42.13221368264585" lon="-1.306692862463449"><ele>325.0</ele><time>2026-03-31T08:22:50Z</time></trkpt><trkpt lat="42.132209562824904" lon="-1.3069172450126636"><ele>325.0</ele><time>2026-03-31T08:22:51Z</time></trkpt><trkpt lat="42.13220729560553" lon="-1.3070792850920971"><ele>325.0</ele><time>2026-03-31T08:22:52Z</time></trkpt><trkpt lat="42.13221053767637" lon="-1.307249854268685"><ele>325.0</ele><time>2026-03-31T08:22:53Z</time></trkpt><trkpt lat="42.13222872946633" lon="-1.3074199525223076"><ele>325.25</ele><time>2026-03-31T08:22:54Z</time></trkpt><trkpt lat="42.1322276253944" lon="-1.3075966895411903"><ele>325.5</ele><time>2026-03-31T08:22:55Z</time></trkpt><trkpt lat="42.132231214319745" lon="-1.3077763534944031"><ele>325.75</ele><time>2026-03-31T08:22:56Z</time></trkpt><trkpt lat="42.13223119120697" lon="-1.307954504690149"><ele>326.0</ele><time>2026-03-31T08:22:57Z</time></trkpt><trkpt lat="42.13222866507901" lon="-1.3081277580915782"><ele>326.5</ele><time>2026-03-31T08:22:58Z</time></trkpt><trkpt lat="42.13222971328634" lon="-1.3082932900144424"><ele>327.0</ele><time>2026-03-31T08:22:59Z</time></trkpt><trkpt lat="42.13222848687961" lon="-1.308465807822151"><ele>327.5</ele><time>2026-03-31T08:23:00Z</time></trkpt><trkpt lat="42.132229098599915" lon="-1.308638811551589"><ele>328.0</ele><time>2026-03-31T08:23:01Z</time></trkpt><trkpt lat="42.132228217206524" lon="-1.3088136331699753"><ele>328.0</ele><time>2026-03-31T08:23:02Z</time></trkpt><trkpt lat="42.132225294730944" lon="-1.3089896256997051"><ele>328.0</ele><time>2026-03-31T08:23:03Z</time></trkpt><trkpt lat="42.132222948686014" lon="-1.3091612471073595"><ele>328.0</ele><time>2026-03-31T08:23:04Z</time></trkpt><trkpt lat="42.13222250126789" lon="-1.3093279322517464"><ele>328.0</ele><time>2026-03-31T08:23:05Z</time></trkpt><trkpt lat="42.132221892943306" lon="-1.3094913753787314"><ele>328.0</ele><time>2026-03-31T08:23:06Z</time></trkpt><trkpt lat="42.13221942083555" lon="-1.3096523559966087"><ele>328.0</ele><time>2026-03-31T08:23:07Z</time></trkpt><trkpt lat="42.13221881117909" lon="-1.3098107800585654"><ele>328.0</ele><time>2026-03-31T08:23:08Z</time></trkpt><trkpt lat="42.13221822879691" lon="-1.3099731717409562"><ele>328.0</ele><time>2026-03-31T08:23:09Z</time></trkpt><trkpt lat="42.13221981433962" lon="-1.3101367726140678"><ele>328.0</ele><time>2026-03-31T08:23:10Z</time></trkpt><trkpt lat="42.132223559072024" lon="-1.3103025139150244"><ele>328.0</ele><time>2026-03-31T08:23:11Z</time></trkpt><trkpt lat="42.13223793838323" lon="-1.3104679210402188"><ele>328.0</ele><time>2026-03-31T08:23:12Z</time></trkpt><trkpt lat="42.13223819776859" lon="-1.3106325428356171"><ele>328.0</ele><time>2026-03-31T08:23:13Z</time></trkpt><trkpt lat="42.13222448625059" lon="-1.310800952653113"><ele>328.0</ele><time>2026-03-31T08:23:14Z</time></trkpt><trkpt lat="42.13222111427289" lon="-1.310976401468121"><ele>328.0</ele><time>2026-03-31T08:23:15Z</time></trkpt><trkpt lat="42.1322226154221" lon="-1.3111528864740836"><ele>328.0</ele><time>2026-03-31T08:23:16Z</time></trkpt><trkpt lat="42.132224155938644" lon="-1.3113299556373694"><ele>328.0</ele><time>2026-03-31T08:23:17Z</time></trkpt><trkpt lat="42.1322241470791" lon="-1.3115040080230957"><ele>327.5</ele><time>2026-03-31T08:23:18Z</time></trkpt><trkpt lat="42.13222463254533" lon="-1.311681021464858"><ele>327.0</ele><time>2026-03-31T08:23:19Z</time></trkpt><trkpt lat="42.13222330448733" lon="-1.311860379301678"><ele>326.5</ele><time>2026-03-31T08:23:20Z</time></trkpt><trkpt lat="42.13222108964101" lon="-1.3120396892549548"><ele>326.0</ele><time>2026-03-31T08:23:21Z</time></trkpt><trkpt lat="42.13221932758924" lon="-1.3122192975399916"><ele>326.25</ele><time>2026-03-31T08:23:22Z</time></trkpt><trkpt lat="42.13221849815232" lon="-1.3123995599353186"><ele>326.5</ele><time>2026-03-31T08:23:23Z</time></trkpt><trkpt lat="42.132217457912574" lon="-1.312578787221518"><ele>326.75</ele><time>2026-03-31T08:23:24Z</time></trkpt><trkpt lat="42.13221854617145" lon="-1.312756005359371"><ele>327.0</ele><time>2026-03-31T08:23:25Z</time></trkpt><trkpt lat="42.13221999957725" lon="-1.312949236565546"><ele>327.0</ele><time>2026-03-31T08:23:26Z</time></trkpt><trkpt lat="42.132217381532605" lon="-1.3131801475482863"><ele>327.0</ele><time>2026-03-31T08:23:27Z</time></trkpt><trkpt lat="42.132216820516625" lon="-1.3134416752493105"><ele>327.0</ele><time>2026-03-31T08:23:28Z</time></trkpt><trkpt lat="42.13222268951348" lon="-1.3136994675284563"><ele>327.0</ele><time>2026-03-31T08:23:29Z</time></trkpt><trkpt lat="42.132223056855146" lon="-1.313963273995186"><ele>327.0</ele><time>2026-03-31T08:23:30Z</time></trkpt><trkpt lat="42.13221694585462" lon="-1.314235966615231"><ele>327.0</ele><time>2026-03-31T08:23:31Z</time></trkpt><trkpt lat="42.13221129908435" lon="-1.31451279775818"><ele>327.3333333333333</ele><time>2026-03-31T08:23:32Z</time></trkpt><trkpt lat="42.13221195871159" lon="-1.314793299646398"><ele>327.66666666666663</ele><time>2026-03-31T08:23:33Z</time></trkpt><trkpt lat="42.132218789176925" lon="-1.31509627187194"><ele>328.0</ele><time>2026-03-31T08:23:34Z</time></trkpt><trkpt lat="42.13222167818528" lon="-1.3154059536481955"><ele>329.0</ele><time>2026-03-31T08:23:35Z</time></trkpt><trkpt lat="42.13222075442429" lon="-1.3157280815142463"><ele>330.0</ele><time>2026-03-31T08:23:36Z</time></trkpt><trkpt lat="42.13221898053065" lon="-1.316042876819333"><ele>330.0</ele><time>2026-03-31T08:23:37Z</time></trkpt><trkpt lat="42.13221645717909" lon="-1.31634856533696"><ele>330.0</ele><time>2026-03-31T08:23:38Z</time></trkpt><trkpt lat="42.132215258380775" lon="-1.3166482517085396"><ele>330.0</ele><time>2026-03-31T08:23:39Z</time></trkpt><trkpt lat="42.13221406433919" lon="-1.3169434730839606"><ele>330.0</ele><time>2026-03-31T08:23:40Z</time></trkpt><trkpt lat="42.132214434119135" lon="-1.3172425497061158"><ele>330.0</ele><time>2026-03-31T08:23:41Z</time></trkpt><trkpt lat="42.13221518878365" lon="-1.3175406317213487"><ele>330.0</ele><time>2026-03-31T08:23:42Z</time></trkpt><trkpt lat="42.132214761940595" lon="-1.3178399812532577"><ele>329.6666666666667</ele><time>2026-03-31T08:23:43Z</time></trkpt><trkpt lat="42.1322114208013" lon="-1.3181366950872113"><ele>329.33333333333337</ele><time>2026-03-31T08:23:44Z</time></trkpt><trkpt lat="42.132211394211566" lon="-1.3184360265831994"><ele>329.0</ele><time>2026-03-31T08:23:45Z</time></trkpt><trkpt lat="42.13221179456259" lon="-1.3187386151777123"><ele>329.0</ele><time>2026-03-31T08:23:46Z</time></trkpt><trkpt lat="42.132210716069565" lon="-1.3190402445333966"><ele>329.0</ele><time>2026-03-31T08:23:47Z</time></trkpt><trkpt lat="42.13220984055905" lon="-1.319339683471438"><ele>329.0</ele><time>2026-03-31T08:23:48Z</time></trkpt><trkpt lat="42.13220980330721" lon="-1.3196363812413106"><ele>329.5</ele><time>2026-03-31T08:23:49Z</time></trkpt><trkpt lat="42.132211610660676" lon="-1.319938565394553"><ele>330.0</ele><time>2026-03-31T08:23:50Z</time></trkpt><trkpt lat="42.132211148418115" lon="-1.3202446155334484"><ele>330.0</ele><time>2026-03-31T08:23:51Z</time></trkpt><trkpt lat="42.13220606845533" lon="-1.3205440760464764"><ele>330.0</ele><time>2026-03-31T08:23:52Z</time></trkpt><trkpt lat="42.13220333968333" lon="-1.3208450863631698"><ele>330.0</ele><time>2026-03-31T08:23:53Z</time></trkpt><trkpt lat="42.13220708759082" lon="-1.3211422783519424"><ele>331.6666666666667</ele><time>2026-03-31T08:23:54Z</time></trkpt><trkpt lat="42.132212070346334" lon="-1.3214425575623792"><ele>333.33333333333337</ele><time>2026-03-31T08:23:55Z</time></trkpt><trkpt lat="42.13221057459346" lon="-1.3217439297526656"><ele>335.0</ele><time>2026-03-31T08:23:56Z</time></trkpt><trkpt lat="42.132206120462506" lon="-1.3220504898700325"><ele>335.0</ele><time>2026-03-31T08:23:57Z</time></trkpt><trkpt lat="42.13220319290942" lon="-1.3223512923718337"><ele>335.0</ele><time>2026-03-31T08:23:58Z</time></trkpt><trkpt lat="42.13219987264466" lon="-1.3226547923617835"><ele>335.0</ele><time>2026-03-31T08:23:59Z</time></trkpt><trkpt lat="42.13219904453774" lon="-1.3229580867933608"><ele>336.5</ele><time>2026-03-31T08:24:00Z</time></trkpt><trkpt lat="42.13220138959155" lon="-1.3232668871433182"><ele>338.0</ele><time>2026-03-31T08:24:01Z</time></trkpt><trkpt lat="42.13220015442701" lon="-1.3235770632688075"><ele>338.0</ele><time>2026-03-31T08:24:02Z</time></trkpt><trkpt lat="42.13219848318106" lon="-1.323884031335593"><ele>338.0</ele><time>2026-03-31T08:24:03Z</time></trkpt><trkpt lat="42.132201724819694" lon="-1.3241816904636692"><ele>338.0</ele><time>2026-03-31T08:24:04Z</time></trkpt><trkpt lat="42.13220168917677" lon="-1.3244815340580107"><ele>337.6666666666667</ele><time>2026-03-31T08:24:05Z</time></trkpt><trkpt lat="42.132193209542535" lon="-1.3247791816775703"><ele>337.3333333333333</ele><time>2026-03-31T08:24:06Z</time></trkpt><trkpt lat="42.13217956499807" lon="-1.3250766894581751"><ele>337.0</ele><time>2026-03-31T08:24:07Z</time></trkpt><trkpt lat="42.13216112131383" lon="-1.3253816514327097"><ele>337.66666666666663</ele><time>2026-03-31T08:24:08Z</time></trkpt><trkpt lat="42.132143233352394" lon="-1.3256815548505856"><ele>338.3333333333333</ele><time>2026-03-31T08:24:09Z</time></trkpt><trkpt lat="42.132107292753815" lon="-1.3259812330235115"><ele>339.0</ele><time>2026-03-31T08:24:10Z</time></trkpt><trkpt lat="42.13204868052833" lon="-1.3262767817153653"><ele>340.0</ele><time>2026-03-31T08:24:11Z</time></trkpt><trkpt lat="42.131977669528034" lon="-1.326572384761125"><ele>341.0</ele><time>2026-03-31T08:24:12Z</time></trkpt><trkpt lat="42.13191750084112" lon="-1.32686378920591"><ele>341.0</ele><time>2026-03-31T08:24:13Z</time></trkpt><trkpt lat="42.13184678181235" lon="-1.327157457539929"><ele>341.0</ele><time>2026-03-31T08:24:14Z</time></trkpt><trkpt lat="42.13176196476252" lon="-1.3274538590121965"><ele>341.0</ele><time>2026-03-31T08:24:15Z</time></trkpt><trkpt lat="42.13168596210071" lon="-1.3277511524362307"><ele>341.0</ele><time>2026-03-31T08:24:16Z</time></trkpt><trkpt lat="42.131613448467114" lon="-1.3280486646361251"><ele>343.0</ele><time>2026-03-31T08:24:17Z</time></trkpt><trkpt lat="42.131532655695786" lon="-1.3283366358309627"><ele>345.0</ele><time>2026-03-31T08:24:18Z</time></trkpt><trkpt lat="42.13145357348742" lon="-1.3286319777695612"><ele>342.5</ele><time>2026-03-31T08:24:19Z</time></trkpt><trkpt lat="42.131388226927164" lon="-1.3289243612169164"><ele>340.0</ele><time>2026-03-31T08:24:20Z</time></trkpt><trkpt lat="42.131316697421134" lon="-1.3292205720274877"><ele>340.0</ele><time>2026-03-31T08:24:21Z</time></trkpt><trkpt lat="42.13123709381148" lon="-1.329521904819212"><ele>340.0</ele><time>2026-03-31T08:24:22Z</time></trkpt><trkpt lat="42.13115528259088" lon="-1.3298239502031752"><ele>340.0</ele><time>2026-03-31T08:24:23Z</time></trkpt><trkpt lat="42.13107926736124" lon="-1.3301265100787638"><ele>340.0</ele><time>2026-03-31T08:24:24Z</time></trkpt><trkpt lat="42.131006529175565" lon="-1.330425942787222"><ele>340.0</ele><time>2026-03-31T08:24:25Z</time></trkpt><trkpt lat="42.1309286389396" lon="-1.3307207606859643"><ele>340.0</ele><time>2026-03-31T08:24:26Z</time></trkpt><trkpt lat="42.13084622226962" lon="-1.331011224185258"><ele>340.0</ele><time>2026-03-31T08:24:27Z</time></trkpt><trkpt lat="42.13077096096241" lon="-1.3312965853711853"><ele>340.0</ele><time>2026-03-31T08:24:28Z</time></trkpt><trkpt lat="42.130702363567615" lon="-1.331584673929772"><ele>340.0</ele><time>2026-03-31T08:24:29Z</time></trkpt><trkpt lat="42.13063259852786" lon="-1.331872920970027"><ele>338.5</ele><time>2026-03-31T08:24:30Z</time></trkpt><trkpt lat="42.13055307219752" lon="-1.3321639743071265"><ele>337.0</ele><time>2026-03-31T08:24:31Z</time></trkpt><trkpt lat="42.130477927405806" lon="-1.332450469623752"><ele>337.0</ele><time>2026-03-31T08:24:32Z</time></trkpt><trkpt lat="42.130408198519625" lon="-1.3327400915429715"><ele>337.0</ele><time>2026-03-31T08:24:33Z</time></trkpt><trkpt lat="42.13033932686714" lon="-1.3330379468081455"><ele>337.5</ele><time>2026-03-31T08:24:34Z</time></trkpt><trkpt lat="42.130274462855574" lon="-1.3333474964175267"><ele>338.0</ele><time>2026-03-31T08:24:35Z</time></trkpt><trkpt lat="42.130233188973975" lon="-1.333654566538936"><ele>338.0</ele><time>2026-03-31T08:24:36Z</time></trkpt><trkpt lat="42.13021129183668" lon="-1.333955717325677"><ele>338.0</ele><time>2026-03-31T08:24:37Z</time></trkpt><trkpt lat="42.1301982681814" lon="-1.3342589532592617"><ele>338.0</ele><time>2026-03-31T08:24:38Z</time></trkpt><trkpt lat="42.13019822708023" lon="-1.334555182869375"><ele>338.0</ele><time>2026-03-31T08:24:39Z</time></trkpt><trkpt lat="42.13021003781947" lon="-1.3348492418307019"><ele>338.0</ele><time>2026-03-31T08:24:40Z</time></trkpt><trkpt lat="42.13022210652994" lon="-1.3351418295569895"><ele>338.33333333333337</ele><time>2026-03-31T08:24:41Z</time></trkpt><trkpt lat="42.130229130141394" lon="-1.33543579496626"><ele>338.6666666666667</ele><time>2026-03-31T08:24:42Z</time></trkpt><trkpt lat="42.13023375974475" lon="-1.335729622763136"><ele>339.0</ele><time>2026-03-31T08:24:43Z</time></trkpt><trkpt lat="42.13023143015674" lon="-1.3360283224629315"><ele>341.5</ele><time>2026-03-31T08:24:44Z</time></trkpt><trkpt lat="42.13021402642601" lon="-1.3363329244855913"><ele>344.0</ele><time>2026-03-31T08:24:45Z</time></trkpt><trkpt lat="42.13018109692531" lon="-1.3366421219556808"><ele>344.0</ele><time>2026-03-31T08:24:46Z</time></trkpt><trkpt lat="42.13013939104226" lon="-1.3369429974854619"><ele>344.0</ele><time>2026-03-31T08:24:47Z</time></trkpt><trkpt lat="42.13008400998943" lon="-1.3372452681187046"><ele>343.5</ele><time>2026-03-31T08:24:48Z</time></trkpt><trkpt lat="42.13001375544946" lon="-1.3375413298001895"><ele>343.0</ele><time>2026-03-31T08:24:49Z</time></trkpt><trkpt lat="42.129933530533975" lon="-1.3378258568213175"><ele>343.5</ele><time>2026-03-31T08:24:50Z</time></trkpt><trkpt lat="42.12984997684511" lon="-1.338109109440275"><ele>344.0</ele><time>2026-03-31T08:24:51Z</time></trkpt><trkpt lat="42.129768136962184" lon="-1.3383911990236979"><ele>344.0</ele><time>2026-03-31T08:24:52Z</time></trkpt><trkpt lat="42.12969088449576" lon="-1.3386732538619044"><ele>344.0</ele><time>2026-03-31T08:24:53Z</time></trkpt><trkpt lat="42.12960504088261" lon="-1.338961263902158"><ele>343.5</ele><time>2026-03-31T08:24:54Z</time></trkpt><trkpt lat="42.12952426537976" lon="-1.3392551346621626"><ele>343.0</ele><time>2026-03-31T08:24:55Z</time></trkpt><trkpt lat="42.12944908532864" lon="-1.3395489325465468"><ele>343.0</ele><time>2026-03-31T08:24:56Z</time></trkpt><trkpt lat="42.12936087564028" lon="-1.339845927641697"><ele>343.0</ele><time>2026-03-31T08:24:57Z</time></trkpt><trkpt lat="42.129268945332285" lon="-1.3401337961983664"><ele>343.0</ele><time>2026-03-31T08:24:58Z</time></trkpt><trkpt lat="42.12919260573718" lon="-1.3404233320048586"><ele>343.0</ele><time>2026-03-31T08:24:59Z</time></trkpt><trkpt lat="42.129119805053186" lon="-1.3407208262762587"><ele>345.0</ele><time>2026-03-31T08:25:00Z</time></trkpt><trkpt lat="42.12903390852767" lon="-1.3410146538353989"><ele>347.0</ele><time>2026-03-31T08:25:01Z</time></trkpt><trkpt lat="42.12894334022262" lon="-1.3413059012639514"><ele>346.0</ele><time>2026-03-31T08:25:02Z</time></trkpt><trkpt lat="42.12885953061612" lon="-1.341599695971606"><ele>345.0</ele><time>2026-03-31T08:25:03Z</time></trkpt><trkpt lat="42.128781207548535" lon="-1.3418974207181456"><ele>345.0</ele><time>2026-03-31T08:25:04Z</time></trkpt><trkpt lat="42.128704353502016" lon="-1.3421996276250958"><ele>345.0</ele><time>2026-03-31T08:25:05Z</time></trkpt><trkpt lat="42.1286144698913" lon="-1.342497793180234"><ele>345.0</ele><time>2026-03-31T08:25:06Z</time></trkpt><trkpt lat="42.1285281441642" lon="-1.3427905250270906"><ele>345.0</ele><time>2026-03-31T08:25:07Z</time></trkpt><trkpt lat="42.12845567015085" lon="-1.3430896450076775"><ele>344.5</ele><time>2026-03-31T08:25:08Z</time></trkpt><trkpt lat="42.1283731575222" lon="-1.3433901456724662"><ele>344.0</ele><time>2026-03-31T08:25:09Z</time></trkpt><trkpt lat="42.12828190726321" lon="-1.3436969568866977"><ele>344.5</ele><time>2026-03-31T08:25:10Z</time></trkpt><trkpt lat="42.12819420224044" lon="-1.344004310968598"><ele>345.0</ele><time>2026-03-31T08:25:11Z</time></trkpt><trkpt lat="42.12810610148225" lon="-1.3443188295764226"><ele>345.0</ele><time>2026-03-31T08:25:12Z</time></trkpt><trkpt lat="42.12802196883296" lon="-1.3446364467122611"><ele>345.0</ele><time>2026-03-31T08:25:13Z</time></trkpt><trkpt lat="42.1279323930345" lon="-1.3449586387803736"><ele>345.5</ele><time>2026-03-31T08:25:14Z</time></trkpt><trkpt lat="42.12783931036807" lon="-1.3452808150978712"><ele>346.0</ele><time>2026-03-31T08:25:15Z</time></trkpt><trkpt lat="42.127752392949716" lon="-1.3456005386615515"><ele>347.0</ele><time>2026-03-31T08:25:16Z</time></trkpt><trkpt lat="42.12766593990367" lon="-1.3459054002426307"><ele>348.0</ele><time>2026-03-31T08:25:17Z</time></trkpt><trkpt lat="42.12758042927291" lon="-1.3462078187325892"><ele>348.0</ele><time>2026-03-31T08:25:18Z</time></trkpt><trkpt lat="42.12750194399672" lon="-1.346507760372909"><ele>348.0</ele><time>2026-03-31T08:25:19Z</time></trkpt><trkpt lat="42.12742259861048" lon="-1.3467935514285896"><ele>347.5</ele><time>2026-03-31T08:25:20Z</time></trkpt><trkpt lat="42.12733865058203" lon="-1.3470767636705971"><ele>347.0</ele><time>2026-03-31T08:25:21Z</time></trkpt><trkpt lat="42.127260992568054" lon="-1.3473612616936386"><ele>347.0</ele><time>2026-03-31T08:25:22Z</time></trkpt><trkpt lat="42.12718392337709" lon="-1.3476404433717815"><ele>347.0</ele><time>2026-03-31T08:25:23Z</time></trkpt><trkpt lat="42.12710259767437" lon="-1.347913767759878"><ele>347.0</ele><time>2026-03-31T08:25:24Z</time></trkpt><trkpt lat="42.127030353948044" lon="-1.348197935983466"><ele>347.5</ele><time>2026-03-31T08:25:25Z</time></trkpt><trkpt lat="42.1269446196515" lon="-1.3484809496690109"><ele>348.0</ele><time>2026-03-31T08:25:26Z</time></trkpt><trkpt lat="42.12686186567358" lon="-1.3487694534257035"><ele>349.0</ele><time>2026-03-31T08:25:27Z</time></trkpt><trkpt lat="42.12678691386992" lon="-1.3490725892643884"><ele>350.0</ele><time>2026-03-31T08:25:28Z</time></trkpt><trkpt lat="42.12670456333748" lon="-1.3493740172072883"><ele>350.0</ele><time>2026-03-31T08:25:29Z</time></trkpt><trkpt lat="42.12661983167956" lon="-1.3496693485845856"><ele>350.0</ele><time>2026-03-31T08:25:30Z</time></trkpt><trkpt lat="42.126535206732626" lon="-1.3499605907722638"><ele>350.0</ele><time>2026-03-31T08:25:31Z</time></trkpt><trkpt lat="42.126452834826424" lon="-1.3502497138125822"><ele>350.0</ele><time>2026-03-31T08:25:32Z</time></trkpt><trkpt lat="42.12637738608583" lon="-1.3505415311279316"><ele>350.5</ele><time>2026-03-31T08:25:33Z</time></trkpt><trkpt lat="42.1262956222633" lon="-1.3508336182326304"><ele>351.0</ele><time>2026-03-31T08:25:34Z</time></trkpt><trkpt lat="42.12621297107047" lon="-1.3511261966047525"><ele>352.5</ele><time>2026-03-31T08:25:35Z</time></trkpt><trkpt lat="42.12613534760059" lon="-1.3514161631177062"><ele>354.0</ele><time>2026-03-31T08:25:36Z</time></trkpt><trkpt lat="42.12605305319791" lon="-1.3517046700967699"><ele>354.0</ele><time>2026-03-31T08:25:37Z</time></trkpt><trkpt lat="42.12597182334085" lon="-1.3519945195868148"><ele>354.0</ele><time>2026-03-31T08:25:38Z</time></trkpt><trkpt lat="42.125914798049784" lon="-1.3521789153144872"><ele>354.0</ele><time>2026-03-31T08:25:39Z</time></trkpt><trkpt lat="42.12584098930202" lon="-1.352434444036876"><ele>354.3333333333333</ele><time>2026-03-31T08:25:40Z</time></trkpt><trkpt lat="42.125764862477986" lon="-1.3526937014283158"><ele>354.66666666666663</ele><time>2026-03-31T08:25:41Z</time></trkpt><trkpt lat="42.125693738994016" lon="-1.3529705365272067"><ele>355.0</ele><time>2026-03-31T08:25:42Z</time></trkpt><trkpt lat="42.1256271437154" lon="-1.3532571183368478"><ele>355.5</ele><time>2026-03-31T08:25:43Z</time></trkpt><trkpt lat="42.125539240009715" lon="-1.3535448711555176"><ele>356.0</ele><time>2026-03-31T08:25:44Z</time></trkpt><trkpt lat="42.12545172626803" lon="-1.3538346596247328"><ele>356.5</ele><time>2026-03-31T08:25:45Z</time></trkpt><trkpt lat="42.125372289485995" lon="-1.3541326071653488"><ele>357.0</ele><time>2026-03-31T08:25:46Z</time></trkpt><trkpt lat="42.12528320532389" lon="-1.354434408076626"><ele>358.0</ele><time>2026-03-31T08:25:47Z</time></trkpt><trkpt lat="42.12520033657638" lon="-1.3547376250811753"><ele>359.0</ele><time>2026-03-31T08:25:48Z</time></trkpt><trkpt lat="42.125123486441225" lon="-1.3550383812868014"><ele>359.0</ele><time>2026-03-31T08:25:49Z</time></trkpt><trkpt lat="42.12504504843298" lon="-1.3553290905167223"><ele>359.0</ele><time>2026-03-31T08:25:50Z</time></trkpt><trkpt lat="42.12496303097421" lon="-1.3556116683918782"><ele>359.0</ele><time>2026-03-31T08:25:51Z</time></trkpt><trkpt lat="42.124878402216154" lon="-1.3558977916333075"><ele>359.0</ele><time>2026-03-31T08:25:52Z</time></trkpt><trkpt lat="42.124797499219" lon="-1.3561855713120523"><ele>360.33333333333337</ele><time>2026-03-31T08:25:53Z</time></trkpt><trkpt lat="42.12471740217243" lon="-1.3564684215285805"><ele>361.6666666666667</ele><time>2026-03-31T08:25:54Z</time></trkpt><trkpt lat="42.12464376784743" lon="-1.3567492429705972"><ele>363.0</ele><time>2026-03-31T08:25:55Z</time></trkpt><trkpt lat="42.12457376265053" lon="-1.357027628623058"><ele>364.0</ele><time>2026-03-31T08:25:56Z</time></trkpt><trkpt lat="42.12449986552995" lon="-1.3573046112567804"><ele>365.0</ele><time>2026-03-31T08:25:57Z</time></trkpt><trkpt lat="42.12441591372501" lon="-1.357578468637458"><ele>366.0</ele><time>2026-03-31T08:25:58Z</time></trkpt><trkpt lat="42.12432912195081" lon="-1.357856055624931"><ele>366.0</ele><time>2026-03-31T08:25:59Z</time></trkpt><trkpt lat="42.12425238240333" lon="-1.358143515577264"><ele>366.0</ele><time>2026-03-31T08:26:00Z</time></trkpt><trkpt lat="42.12417790543976" lon="-1.35843994315489"><ele>366.0</ele><time>2026-03-31T08:26:01Z</time></trkpt><trkpt lat="42.12409096891098" lon="-1.3587357098588277"><ele>366.0</ele><time>2026-03-31T08:26:02Z</time></trkpt><trkpt lat="42.124000297234915" lon="-1.3590364490520885"><ele>367.0</ele><time>2026-03-31T08:26:03Z</time></trkpt><trkpt lat="42.12391760048833" lon="-1.3593422867629805"><ele>368.0</ele><time>2026-03-31T08:26:04Z</time></trkpt><trkpt lat="42.12384352030661" lon="-1.359646887678891"><ele>368.5</ele><time>2026-03-31T08:26:05Z</time></trkpt><trkpt lat="42.12376619411457" lon="-1.3599375751033345"><ele>369.0</ele><time>2026-03-31T08:26:06Z</time></trkpt><trkpt lat="42.12367610460752" lon="-1.3602149692284877"><ele>369.0</ele><time>2026-03-31T08:26:07Z</time></trkpt><trkpt lat="42.1235874743079" lon="-1.3605031555766558"><ele>369.0</ele><time>2026-03-31T08:26:08Z</time></trkpt><trkpt lat="42.123511716942765" lon="-1.360803589773743"><ele>370.5</ele><time>2026-03-31T08:26:09Z</time></trkpt><trkpt lat="42.12343567934932" lon="-1.3611098156091606"><ele>372.0</ele><time>2026-03-31T08:26:10Z</time></trkpt><trkpt lat="42.12334348211036" lon="-1.361402903599978"><ele>373.5</ele><time>2026-03-31T08:26:11Z</time></trkpt><trkpt lat="42.123246473396286" lon="-1.3616909763413878"><ele>375.0</ele><time>2026-03-31T08:26:12Z</time></trkpt><trkpt lat="42.12314635418934" lon="-1.3619934319163052"><ele>375.6666666666667</ele><time>2026-03-31T08:26:13Z</time></trkpt><trkpt lat="42.12308733122439" lon="-1.362272154215522"><ele>376.33333333333337</ele><time>2026-03-31T08:26:14Z</time></trkpt><trkpt lat="42.123009240734014" lon="-1.3625628292302907"><ele>377.0</ele><time>2026-03-31T08:26:15Z</time></trkpt><trkpt lat="42.12294145563012" lon="-1.362863108921278"><ele>377.0</ele><time>2026-03-31T08:26:16Z</time></trkpt><trkpt lat="42.122890700314116" lon="-1.3631715673529428"><ele>377.0</ele><time>2026-03-31T08:26:17Z</time></trkpt><trkpt lat="42.12284545923225" lon="-1.3634815376375182"><ele>377.0</ele><time>2026-03-31T08:26:18Z</time></trkpt><trkpt lat="42.12279736901151" lon="-1.3637961533679444"><ele>377.0</ele><time>2026-03-31T08:26:19Z</time></trkpt><trkpt lat="42.12275611031871" lon="-1.3641181161162157"><ele>378.0</ele><time>2026-03-31T08:26:20Z</time></trkpt><trkpt lat="42.12274936849236" lon="-1.3644459756999192"><ele>379.0</ele><time>2026-03-31T08:26:21Z</time></trkpt><trkpt lat="42.12274158897184" lon="-1.3647740487406095"><ele>379.0</ele><time>2026-03-31T08:26:22Z</time></trkpt><trkpt lat="42.122722540317234" lon="-1.3650911880089622"><ele>379.0</ele><time>2026-03-31T08:26:23Z</time></trkpt><trkpt lat="42.12273295554182" lon="-1.3654036297720913"><ele>382.5</ele><time>2026-03-31T08:26:24Z</time></trkpt><trkpt lat="42.122747614135456" lon="-1.3657201325935684"><ele>386.0</ele><time>2026-03-31T08:26:25Z</time></trkpt><trkpt lat="42.122769609234936" lon="-1.3660379778749223"><ele>386.0</ele><time>2026-03-31T08:26:26Z</time></trkpt><trkpt lat="42.12280530724547" lon="-1.3663561444684076"><ele>386.0</ele><time>2026-03-31T08:26:27Z</time></trkpt><trkpt lat="42.12284540050075" lon="-1.3666759213687247"><ele>389.0</ele><time>2026-03-31T08:26:28Z</time></trkpt><trkpt lat="42.12288206775767" lon="-1.3669958824697213"><ele>392.0</ele><time>2026-03-31T08:26:29Z</time></trkpt><trkpt lat="42.12292188604396" lon="-1.3673104638152052"><ele>394.0</ele><time>2026-03-31T08:26:30Z</time></trkpt><trkpt lat="42.12295938851501" lon="-1.3676205181660084"><ele>396.0</ele><time>2026-03-31T08:26:31Z</time></trkpt><trkpt lat="42.1229897607727" lon="-1.3679311297197716"><ele>398.0</ele><time>2026-03-31T08:26:32Z</time></trkpt><trkpt lat="42.12301293367803" lon="-1.368242077741625"><ele>400.0</ele><time>2026-03-31T08:26:33Z</time></trkpt><trkpt lat="42.12303655206833" lon="-1.3685587333493587"><ele>402.5</ele><time>2026-03-31T08:26:34Z</time></trkpt><trkpt lat="42.12305334615143" lon="-1.3688805878698547"><ele>405.0</ele><time>2026-03-31T08:26:35Z</time></trkpt><trkpt lat="42.123051241024164" lon="-1.3691995358551532"><ele>405.0</ele><time>2026-03-31T08:26:36Z</time></trkpt><trkpt lat="42.12305490820802" lon="-1.3695170659849762"><ele>405.0</ele><time>2026-03-31T08:26:37Z</time></trkpt><trkpt lat="42.12305092669058" lon="-1.3698374571907688"><ele>408.5</ele><time>2026-03-31T08:26:38Z</time></trkpt><trkpt lat="42.12301828799952" lon="-1.3701625062589606"><ele>412.0</ele><time>2026-03-31T08:26:39Z</time></trkpt><trkpt lat="42.12300880273846" lon="-1.3704905811575148"><ele>410.5</ele><time>2026-03-31T08:26:40Z</time></trkpt><trkpt lat="42.122971961687895" lon="-1.370814652659597"><ele>409.0</ele><time>2026-03-31T08:26:41Z</time></trkpt><trkpt lat="42.122925501456315" lon="-1.3711388888530134"><ele>406.0</ele><time>2026-03-31T08:26:42Z</time></trkpt><trkpt lat="42.122872792034244" lon="-1.3714663959093072"><ele>403.0</ele><time>2026-03-31T08:26:43Z</time></trkpt><trkpt lat="42.12282650237281" lon="-1.3717980999041062"><ele>403.0</ele><time>2026-03-31T08:26:44Z</time></trkpt><trkpt lat="42.12277381056045" lon="-1.372123773624694"><ele>403.0</ele><time>2026-03-31T08:26:45Z</time></trkpt><trkpt lat="42.12269636977678" lon="-1.3724398543694474"><ele>401.5</ele><time>2026-03-31T08:26:46Z</time></trkpt><trkpt lat="42.122615600937195" lon="-1.3727523870146574"><ele>400.0</ele><time>2026-03-31T08:26:47Z</time></trkpt><trkpt lat="42.122540287655454" lon="-1.3730662659016988"><ele>400.0</ele><time>2026-03-31T08:26:48Z</time></trkpt><trkpt lat="42.12245235955877" lon="-1.3733725545843916"><ele>400.0</ele><time>2026-03-31T08:26:49Z</time></trkpt><trkpt lat="42.12235773704578" lon="-1.3736724567744514"><ele>399.0</ele><time>2026-03-31T08:26:50Z</time></trkpt><trkpt lat="42.12226120458723" lon="-1.3739713395277235"><ele>398.0</ele><time>2026-03-31T08:26:51Z</time></trkpt><trkpt lat="42.12215789559086" lon="-1.3742661404663123"><ele>398.0</ele><time>2026-03-31T08:26:52Z</time></trkpt><trkpt lat="42.12204325232733" lon="-1.3745570713226074"><ele>398.0</ele><time>2026-03-31T08:26:53Z</time></trkpt><trkpt lat="42.121918295609355" lon="-1.3748438910907623"><ele>396.0</ele><time>2026-03-31T08:26:54Z</time></trkpt><trkpt lat="42.121785364778425" lon="-1.375123381281537"><ele>394.0</ele><time>2026-03-31T08:26:55Z</time></trkpt><trkpt lat="42.121648271552765" lon="-1.3753999218105293"><ele>392.5</ele><time>2026-03-31T08:26:56Z</time></trkpt><trkpt lat="42.1215036488937" lon="-1.3756673284943797"><ele>391.0</ele><time>2026-03-31T08:26:57Z</time></trkpt><trkpt lat="42.12135629415971" lon="-1.3759261929540827"><ele>391.0</ele><time>2026-03-31T08:26:58Z</time></trkpt><trkpt lat="42.12120386605087" lon="-1.3761822323587187"><ele>391.0</ele><time>2026-03-31T08:26:59Z</time></trkpt><trkpt lat="42.12104803270151" lon="-1.3764259125182938"><ele>391.5</ele><time>2026-03-31T08:27:00Z</time></trkpt><trkpt lat="42.12088891868525" lon="-1.3766640705226088"><ele>392.0</ele><time>2026-03-31T08:27:01Z</time></trkpt><trkpt lat="42.12072906142423" lon="-1.3768981810833247"><ele>393.5</ele><time>2026-03-31T08:27:02Z</time></trkpt><trkpt lat="42.12056652604772" lon="-1.377129031295911"><ele>395.0</ele><time>2026-03-31T08:27:03Z</time></trkpt><trkpt lat="42.120395946736785" lon="-1.3773550726939223"><ele>396.5</ele><time>2026-03-31T08:27:04Z</time></trkpt><trkpt lat="42.12021800896147" lon="-1.3775766181749314"><ele>398.0</ele><time>2026-03-31T08:27:05Z</time></trkpt><trkpt lat="42.12004079924939" lon="-1.3777992147295917"><ele>406.0</ele><time>2026-03-31T08:27:06Z</time></trkpt><trkpt lat="42.11986427416336" lon="-1.3780244975489735"><ele>414.0</ele><time>2026-03-31T08:27:07Z</time></trkpt><trkpt lat="42.11968677134473" lon="-1.3782491578523497"><ele>414.0</ele><time>2026-03-31T08:27:08Z</time></trkpt><trkpt lat="42.11951001164075" lon="-1.3784777736219815"><ele>414.0</ele><time>2026-03-31T08:27:09Z</time></trkpt><trkpt lat="42.11933190990173" lon="-1.3787040798784425"><ele>413.0</ele><time>2026-03-31T08:27:10Z</time></trkpt><trkpt lat="42.119151451298244" lon="-1.3789299297758093"><ele>412.0</ele><time>2026-03-31T08:27:11Z</time></trkpt><trkpt lat="42.118955621850134" lon="-1.3791099596337855"><ele>412.0</ele><time>2026-03-31T08:27:12Z</time></trkpt><trkpt lat="42.118791516079085" lon="-1.3793824219636963"><ele>412.0</ele><time>2026-03-31T08:27:13Z</time></trkpt><trkpt lat="42.11860732550131" lon="-1.3796112431088619"><ele>411.5</ele><time>2026-03-31T08:27:14Z</time></trkpt><trkpt lat="42.1184184071673" lon="-1.3798423989301078"><ele>411.0</ele><time>2026-03-31T08:27:15Z</time></trkpt><trkpt lat="42.118230358974195" lon="-1.3800710247101533"><ele>414.5</ele><time>2026-03-31T08:27:16Z</time></trkpt><trkpt lat="42.118049690988286" lon="-1.3803044699182743"><ele>418.0</ele><time>2026-03-31T08:27:17Z</time></trkpt><trkpt lat="42.117872886203116" lon="-1.3805360916803493"><ele>421.5</ele><time>2026-03-31T08:27:18Z</time></trkpt><trkpt lat="42.11769902786452" lon="-1.380772551583943"><ele>425.0</ele><time>2026-03-31T08:27:19Z</time></trkpt><trkpt lat="42.1175165524261" lon="-1.3810073170454518"><ele>427.5</ele><time>2026-03-31T08:27:20Z</time></trkpt><trkpt lat="42.11732413364119" lon="-1.381240142048772"><ele>430.0</ele><time>2026-03-31T08:27:21Z</time></trkpt><trkpt lat="42.117135376654026" lon="-1.3814741541227684"><ele>430.5</ele><time>2026-03-31T08:27:22Z</time></trkpt><trkpt lat="42.1169467757315" lon="-1.3817090852813183"><ele>431.0</ele><time>2026-03-31T08:27:23Z</time></trkpt><trkpt lat="42.11675778194377" lon="-1.3819398875171778"><ele>431.0</ele><time>2026-03-31T08:27:24Z</time></trkpt><trkpt lat="42.11657319527004" lon="-1.3821718774081642"><ele>431.0</ele><time>2026-03-31T08:27:25Z</time></trkpt><trkpt lat="42.11639420932242" lon="-1.382407818865948"><ele>432.0</ele><time>2026-03-31T08:27:26Z</time></trkpt><trkpt lat="42.11621474698345" lon="-1.3826422962037983"><ele>433.0</ele><time>2026-03-31T08:27:27Z</time></trkpt><trkpt lat="42.11603020970071" lon="-1.382884897500302"><ele>432.5</ele><time>2026-03-31T08:27:28Z</time></trkpt><trkpt lat="42.115848259843155" lon="-1.3831363387391198"><ele>432.0</ele><time>2026-03-31T08:27:29Z</time></trkpt><trkpt lat="42.115675716937496" lon="-1.383399894995167"><ele>432.0</ele><time>2026-03-31T08:27:30Z</time></trkpt><trkpt lat="42.11551148729181" lon="-1.3836676093248808"><ele>432.0</ele><time>2026-03-31T08:27:31Z</time></trkpt><trkpt lat="42.1153392206379" lon="-1.3839495401833188"><ele>430.0</ele><time>2026-03-31T08:27:32Z</time></trkpt><trkpt lat="42.11516985622614" lon="-1.3842316298648205"><ele>428.0</ele><time>2026-03-31T08:27:33Z</time></trkpt><trkpt lat="42.11500038503472" lon="-1.3845022009056915"><ele>428.0</ele><time>2026-03-31T08:27:34Z</time></trkpt><trkpt lat="42.11483922062793" lon="-1.3847885021665296"><ele>428.0</ele><time>2026-03-31T08:27:35Z</time></trkpt><trkpt lat="42.11469978039033" lon="-1.3850777744867837"><ele>428.0</ele><time>2026-03-31T08:27:36Z</time></trkpt><trkpt lat="42.114555266700684" lon="-1.3853641343429461"><ele>428.0</ele><time>2026-03-31T08:27:37Z</time></trkpt><trkpt lat="42.114407271129615" lon="-1.3856471994990238"><ele>426.5</ele><time>2026-03-31T08:27:38Z</time></trkpt><trkpt lat="42.11427738206472" lon="-1.3859383774396328"><ele>425.0</ele><time>2026-03-31T08:27:39Z</time></trkpt><trkpt lat="42.114153005120386" lon="-1.3862359700648312"><ele>423.0</ele><time>2026-03-31T08:27:40Z</time></trkpt><trkpt lat="42.11402783808866" lon="-1.3865355098853294"><ele>421.0</ele><time>2026-03-31T08:27:41Z</time></trkpt><trkpt lat="42.11390031512325" lon="-1.3868400990817882"><ele>421.0</ele><time>2026-03-31T08:27:42Z</time></trkpt><trkpt lat="42.113786505590525" lon="-1.387142216554607"><ele>421.0</ele><time>2026-03-31T08:27:43Z</time></trkpt><trkpt lat="42.11367405369037" lon="-1.38744612888489"><ele>421.5</ele><time>2026-03-31T08:27:44Z</time></trkpt><trkpt lat="42.11355862336708" lon="-1.3877586766999708"><ele>422.0</ele><time>2026-03-31T08:27:45Z</time></trkpt><trkpt lat="42.113452299148236" lon="-1.38807432764767"><ele>422.0</ele><time>2026-03-31T08:27:46Z</time></trkpt><trkpt lat="42.113354398305816" lon="-1.3883955008755813"><ele>422.0</ele><time>2026-03-31T08:27:47Z</time></trkpt><trkpt lat="42.11326128597451" lon="-1.3887138477748666"><ele>421.5</ele><time>2026-03-31T08:27:48Z</time></trkpt><trkpt lat="42.11316501739668" lon="-1.3890241593032469"><ele>421.0</ele><time>2026-03-31T08:27:49Z</time></trkpt><trkpt lat="42.113066333537716" lon="-1.3893068821598646"><ele>421.0</ele><time>2026-03-31T08:27:50Z</time></trkpt><trkpt lat="42.112972251226076" lon="-1.3895983388137851"><ele>421.0</ele><time>2026-03-31T08:27:51Z</time></trkpt><trkpt lat="42.112888690955785" lon="-1.3898795649636988"><ele>420.6666666666667</ele><time>2026-03-31T08:27:52Z</time></trkpt><trkpt lat="42.11280731681809" lon="-1.3901482880361131"><ele>420.33333333333337</ele><time>2026-03-31T08:27:53Z</time></trkpt><trkpt lat="42.11272455705091" lon="-1.3904178358739325"><ele>420.0</ele><time>2026-03-31T08:27:54Z</time></trkpt><trkpt lat="42.11263465162187" lon="-1.3906981823967322"><ele>420.0</ele><time>2026-03-31T08:27:55Z</time></trkpt><trkpt lat="42.11253256764267" lon="-1.390986846223451"><ele>420.0</ele><time>2026-03-31T08:27:56Z</time></trkpt><trkpt lat="42.112451443206645" lon="-1.39127753112921"><ele>420.0</ele><time>2026-03-31T08:27:57Z</time></trkpt><trkpt lat="42.112363529337976" lon="-1.3915700344805624"><ele>420.0</ele><time>2026-03-31T08:27:58Z</time></trkpt><trkpt lat="42.1122706504869" lon="-1.3918610352165715"><ele>420.0</ele><time>2026-03-31T08:27:59Z</time></trkpt><trkpt lat="42.112176450549285" lon="-1.3921604585361829"><ele>420.0</ele><time>2026-03-31T08:28:00Z</time></trkpt><trkpt lat="42.11208160809573" lon="-1.392452543073201"><ele>420.0</ele><time>2026-03-31T08:28:01Z</time></trkpt><trkpt lat="42.1119881435869" lon="-1.3927464186534073"><ele>420.0</ele><time>2026-03-31T08:28:02Z</time></trkpt><trkpt lat="42.11190277945506" lon="-1.3930466314084997"><ele>419.0</ele><time>2026-03-31T08:28:03Z</time></trkpt><trkpt lat="42.11181719727274" lon="-1.3933457860279719"><ele>418.0</ele><time>2026-03-31T08:28:04Z</time></trkpt><trkpt lat="42.11172082242504" lon="-1.3936280421904468"><ele>418.0</ele><time>2026-03-31T08:28:05Z</time></trkpt><trkpt lat="42.11162624253236" lon="-1.3939114935320258"><ele>418.0</ele><time>2026-03-31T08:28:06Z</time></trkpt><trkpt lat="42.11153727521069" lon="-1.3941961595471895"><ele>418.0</ele><time>2026-03-31T08:28:07Z</time></trkpt><trkpt lat="42.11144620394805" lon="-1.3944785263424833"><ele>418.0</ele><time>2026-03-31T08:28:08Z</time></trkpt><trkpt lat="42.111363527723434" lon="-1.3947610832741408"><ele>418.0</ele><time>2026-03-31T08:28:09Z</time></trkpt><trkpt lat="42.11127938541515" lon="-1.3950368565890807"><ele>418.0</ele><time>2026-03-31T08:28:10Z</time></trkpt><trkpt lat="42.11119635922031" lon="-1.3953116156681924"><ele>418.0</ele><time>2026-03-31T08:28:11Z</time></trkpt><trkpt lat="42.11111200981316" lon="-1.3955867134895783"><ele>419.0</ele><time>2026-03-31T08:28:12Z</time></trkpt><trkpt lat="42.111016884603124" lon="-1.3958626208615514"><ele>420.0</ele><time>2026-03-31T08:28:13Z</time></trkpt><trkpt lat="42.11091959715786" lon="-1.3961445268544614"><ele>419.0</ele><time>2026-03-31T08:28:14Z</time></trkpt><trkpt lat="42.11081023274687" lon="-1.3964172242290087"><ele>418.0</ele><time>2026-03-31T08:28:15Z</time></trkpt><trkpt lat="42.11067325530428" lon="-1.3966732365165635"><ele>417.0</ele><time>2026-03-31T08:28:16Z</time></trkpt><trkpt lat="42.11051107722619" lon="-1.3969131290043508"><ele>416.0</ele><time>2026-03-31T08:28:17Z</time></trkpt><trkpt lat="42.11033687373151" lon="-1.3971188209539207"><ele>414.5</ele><time>2026-03-31T08:28:18Z</time></trkpt><trkpt lat="42.11014501814234" lon="-1.3973182005849387"><ele>413.0</ele><time>2026-03-31T08:28:19Z</time></trkpt><trkpt lat="42.10994997402995" lon="-1.3974984076814565"><ele>411.0</ele><time>2026-03-31T08:28:20Z</time></trkpt><trkpt lat="42.10975585030154" lon="-1.3976695249696887"><ele>409.0</ele><time>2026-03-31T08:28:21Z</time></trkpt><trkpt lat="42.109561375296686" lon="-1.3978456522343101"><ele>409.5</ele><time>2026-03-31T08:28:22Z</time></trkpt><trkpt lat="42.10936626706199" lon="-1.3980217074608061"><ele>410.0</ele><time>2026-03-31T08:28:23Z</time></trkpt><trkpt lat="42.10916913867603" lon="-1.3982051161516043"><ele>408.5</ele><time>2026-03-31T08:28:24Z</time></trkpt><trkpt lat="42.10898727291597" lon="-1.398411500655639"><ele>407.0</ele><time>2026-03-31T08:28:25Z</time></trkpt><trkpt lat="42.10881506110456" lon="-1.3986359845837457"><ele>407.0</ele><time>2026-03-31T08:28:26Z</time></trkpt><trkpt lat="42.10865175007285" lon="-1.398866239117642"><ele>407.0</ele><time>2026-03-31T08:28:27Z</time></trkpt><trkpt lat="42.10850198790546" lon="-1.3991125742695008"><ele>407.0</ele><time>2026-03-31T08:28:28Z</time></trkpt><trkpt lat="42.10836584782737" lon="-1.3993708923881314"><ele>407.0</ele><time>2026-03-31T08:28:29Z</time></trkpt><trkpt lat="42.10822977903119" lon="-1.3996380195061526"><ele>406.5</ele><time>2026-03-31T08:28:30Z</time></trkpt><trkpt lat="42.1081160816546" lon="-1.399905472495922"><ele>406.0</ele><time>2026-03-31T08:28:31Z</time></trkpt><trkpt lat="42.1080145954137" lon="-1.400194041964847"><ele>406.0</ele><time>2026-03-31T08:28:32Z</time></trkpt><trkpt lat="42.10792204568452" lon="-1.4004931226647557"><ele>406.0</ele><time>2026-03-31T08:28:33Z</time></trkpt><trkpt lat="42.10783859538681" lon="-1.4007876424211365"><ele>406.5</ele><time>2026-03-31T08:28:34Z</time></trkpt><trkpt lat="42.10776733961414" lon="-1.4010906200970774"><ele>407.0</ele><time>2026-03-31T08:28:35Z</time></trkpt><trkpt lat="42.10771662386727" lon="-1.401396391535105"><ele>407.0</ele><time>2026-03-31T08:28:36Z</time></trkpt><trkpt lat="42.10768623354542" lon="-1.4017105264582943"><ele>407.0</ele><time>2026-03-31T08:28:37Z</time></trkpt><trkpt lat="42.10765786842067" lon="-1.402023621635387"><ele>406.5</ele><time>2026-03-31T08:28:38Z</time></trkpt><trkpt lat="42.10762487166828" lon="-1.40231439067965"><ele>406.0</ele><time>2026-03-31T08:28:39Z</time></trkpt><trkpt lat="42.10759814538302" lon="-1.4026359679241531"><ele>406.0</ele><time>2026-03-31T08:28:40Z</time></trkpt><trkpt lat="42.10757533868969" lon="-1.402953819588474"><ele>406.0</ele><time>2026-03-31T08:28:41Z</time></trkpt><trkpt lat="42.10753979199491" lon="-1.4032613445492164"><ele>405.5</ele><time>2026-03-31T08:28:42Z</time></trkpt><trkpt lat="42.10747077592693" lon="-1.4035614390374052"><ele>405.0</ele><time>2026-03-31T08:28:43Z</time></trkpt><trkpt lat="42.107380705111424" lon="-1.4038473044358384"><ele>405.0</ele><time>2026-03-31T08:28:44Z</time></trkpt><trkpt lat="42.10725654907439" lon="-1.4041185053332785"><ele>405.0</ele><time>2026-03-31T08:28:45Z</time></trkpt><trkpt lat="42.107114439528" lon="-1.404357040579305"><ele>405.0</ele><time>2026-03-31T08:28:46Z</time></trkpt><trkpt lat="42.10693951521348" lon="-1.4045773223339493"><ele>405.0</ele><time>2026-03-31T08:28:47Z</time></trkpt><trkpt lat="42.106759916875056" lon="-1.4047687548740786"><ele>404.0</ele><time>2026-03-31T08:28:48Z</time></trkpt><trkpt lat="42.10655564890998" lon="-1.4049377847389797"><ele>403.0</ele><time>2026-03-31T08:28:49Z</time></trkpt><trkpt lat="42.106346765354125" lon="-1.405095857172963"><ele>403.0</ele><time>2026-03-31T08:28:50Z</time></trkpt><trkpt lat="42.10615145049459" lon="-1.4052568368320568"><ele>403.0</ele><time>2026-03-31T08:28:51Z</time></trkpt><trkpt lat="42.105965648274655" lon="-1.4054125803213466"><ele>403.0</ele><time>2026-03-31T08:28:52Z</time></trkpt><trkpt lat="42.105780043859184" lon="-1.4055773399687086"><ele>402.0</ele><time>2026-03-31T08:28:53Z</time></trkpt><trkpt lat="42.105595653414376" lon="-1.4057662955681014"><ele>401.0</ele><time>2026-03-31T08:28:54Z</time></trkpt><trkpt lat="42.105425290453" lon="-1.4059852794246281"><ele>401.0</ele><time>2026-03-31T08:28:55Z</time></trkpt><trkpt lat="42.105283909768666" lon="-1.4062274845709404"><ele>401.0</ele><time>2026-03-31T08:28:56Z</time></trkpt><trkpt lat="42.10515547475299" lon="-1.4065069457948212"><ele>403.5</ele><time>2026-03-31T08:28:57Z</time></trkpt><trkpt lat="42.105056841195285" lon="-1.406798523140863"><ele>406.0</ele><time>2026-03-31T08:28:58Z</time></trkpt><trkpt lat="42.10497959703745" lon="-1.4070921893990513"><ele>407.0</ele><time>2026-03-31T08:28:59Z</time></trkpt><trkpt lat="42.104955660388654" lon="-1.4073841781072223"><ele>408.0</ele><time>2026-03-31T08:29:00Z</time></trkpt><trkpt lat="42.10494411750796" lon="-1.4076674434398084"><ele>409.0</ele><time>2026-03-31T08:29:01Z</time></trkpt><trkpt lat="42.10493123556814" lon="-1.4079636282713803"><ele>405.5</ele><time>2026-03-31T08:29:02Z</time></trkpt><trkpt lat="42.10494009055843" lon="-1.4082680624400095"><ele>402.0</ele><time>2026-03-31T08:29:03Z</time></trkpt><trkpt lat="42.1049344634559" lon="-1.408571354544197"><ele>401.66666666666663</ele><time>2026-03-31T08:29:04Z</time></trkpt><trkpt lat="42.10491664719205" lon="-1.408872046544543"><ele>401.3333333333333</ele><time>2026-03-31T08:29:05Z</time></trkpt><trkpt lat="42.10491736483852" lon="-1.4091752664016715"><ele>401.0</ele><time>2026-03-31T08:29:06Z</time></trkpt><trkpt lat="42.104917674321946" lon="-1.4094800760848802"><ele>399.66666666666663</ele><time>2026-03-31T08:29:07Z</time></trkpt><trkpt lat="42.10490615269317" lon="-1.409778617661798"><ele>398.33333333333337</ele><time>2026-03-31T08:29:08Z</time></trkpt><trkpt lat="42.10490303597248" lon="-1.410074226073331"><ele>397.0</ele><time>2026-03-31T08:29:09Z</time></trkpt><trkpt lat="42.10490154268006" lon="-1.410367099953384"><ele>398.0</ele><time>2026-03-31T08:29:10Z</time></trkpt><trkpt lat="42.10489110748825" lon="-1.4106641447784336"><ele>399.0</ele><time>2026-03-31T08:29:11Z</time></trkpt><trkpt lat="42.10488878514477" lon="-1.4109671491989255"><ele>400.0</ele><time>2026-03-31T08:29:12Z</time></trkpt><trkpt lat="42.104871360648794" lon="-1.4112690538736978"><ele>400.33333333333337</ele><time>2026-03-31T08:29:13Z</time></trkpt><trkpt lat="42.10482677485518" lon="-1.4115611170612536"><ele>400.66666666666663</ele><time>2026-03-31T08:29:14Z</time></trkpt><trkpt lat="42.10476988037925" lon="-1.4118475560389918"><ele>401.0</ele><time>2026-03-31T08:29:15Z</time></trkpt><trkpt lat="42.10470115899094" lon="-1.4121339970445173"><ele>401.0</ele><time>2026-03-31T08:29:16Z</time></trkpt><trkpt lat="42.104627046392245" lon="-1.4124043367997736"><ele>401.0</ele><time>2026-03-31T08:29:17Z</time></trkpt><trkpt lat="42.104525287136894" lon="-1.412659548559879"><ele>401.0</ele><time>2026-03-31T08:29:18Z</time></trkpt><trkpt lat="42.10440873255486" lon="-1.4129070775904509"><ele>401.66666666666663</ele><time>2026-03-31T08:29:19Z</time></trkpt><trkpt lat="42.104281668684344" lon="-1.4131360883542226"><ele>402.33333333333337</ele><time>2026-03-31T08:29:20Z</time></trkpt><trkpt lat="42.10413731542595" lon="-1.4133525498324773"><ele>403.0</ele><time>2026-03-31T08:29:21Z</time></trkpt><trkpt lat="42.10398653365546" lon="-1.413562658830872"><ele>403.33333333333337</ele><time>2026-03-31T08:29:22Z</time></trkpt><trkpt lat="42.10383480117926" lon="-1.4137575581088508"><ele>403.66666666666663</ele><time>2026-03-31T08:29:23Z</time></trkpt><trkpt lat="42.1036602051514" lon="-1.4139312943213347"><ele>404.0</ele><time>2026-03-31T08:29:24Z</time></trkpt><trkpt lat="42.103478851618654" lon="-1.414091782044424"><ele>404.0</ele><time>2026-03-31T08:29:25Z</time></trkpt><trkpt lat="42.10329724615433" lon="-1.4142484458815638"><ele>404.0</ele><time>2026-03-31T08:29:26Z</time></trkpt><trkpt lat="42.10311632350728" lon="-1.4144062427756456"><ele>404.0</ele><time>2026-03-31T08:29:27Z</time></trkpt><trkpt lat="42.10293404169561" lon="-1.4145632877122927"><ele>404.0</ele><time>2026-03-31T08:29:28Z</time></trkpt><trkpt lat="42.102751985778795" lon="-1.4147321819764165"><ele>404.0</ele><time>2026-03-31T08:29:29Z</time></trkpt><trkpt lat="42.10257017480205" lon="-1.4149137205982425"><ele>404.0</ele><time>2026-03-31T08:29:30Z</time></trkpt><trkpt lat="42.10237627657388" lon="-1.415084334575561"><ele>399.5</ele><time>2026-03-31T08:29:31Z</time></trkpt><trkpt lat="42.10217582636214" lon="-1.4152542773263261"><ele>395.0</ele><time>2026-03-31T08:29:32Z</time></trkpt><trkpt lat="42.10198630957392" lon="-1.415431118733934"><ele>397.0</ele><time>2026-03-31T08:29:33Z</time></trkpt><trkpt lat="42.101819160571715" lon="-1.4156388730878586"><ele>399.0</ele><time>2026-03-31T08:29:34Z</time></trkpt><trkpt lat="42.10164954262949" lon="-1.4158446313602469"><ele>391.5</ele><time>2026-03-31T08:29:35Z</time></trkpt><trkpt lat="42.10148730334177" lon="-1.4160646722774766"><ele>384.0</ele><time>2026-03-31T08:29:36Z</time></trkpt><trkpt lat="42.101315243885935" lon="-1.4162802022666896"><ele>384.5</ele><time>2026-03-31T08:29:37Z</time></trkpt><trkpt lat="42.101166950343675" lon="-1.4165187070736887"><ele>385.0</ele><time>2026-03-31T08:29:38Z</time></trkpt><trkpt lat="42.101046243317604" lon="-1.416780533413889"><ele>385.0</ele><time>2026-03-31T08:29:39Z</time></trkpt><trkpt lat="42.100923998244326" lon="-1.4170413524813346"><ele>385.0</ele><time>2026-03-31T08:29:40Z</time></trkpt><trkpt lat="42.10081161590731" lon="-1.4173029590678323"><ele>382.6666666666667</ele><time>2026-03-31T08:29:41Z</time></trkpt><trkpt lat="42.10069378540894" lon="-1.4175584272220298"><ele>380.33333333333337</ele><time>2026-03-31T08:29:42Z</time></trkpt><trkpt lat="42.10059798185135" lon="-1.4178320760158372"><ele>378.0</ele><time>2026-03-31T08:29:43Z</time></trkpt><trkpt lat="42.100520701225825" lon="-1.418121348438576"><ele>378.0</ele><time>2026-03-31T08:29:44Z</time></trkpt><trkpt lat="42.10043592382596" lon="-1.418407916892473"><ele>378.0</ele><time>2026-03-31T08:29:45Z</time></trkpt><trkpt lat="42.10034101084695" lon="-1.4186893709542143"><ele>378.5</ele><time>2026-03-31T08:29:46Z</time></trkpt><trkpt lat="42.10027196766855" lon="-1.4189811005966055"><ele>379.0</ele><time>2026-03-31T08:29:47Z</time></trkpt><trkpt lat="42.10019752650114" lon="-1.419273067481117"><ele>379.0</ele><time>2026-03-31T08:29:48Z</time></trkpt><trkpt lat="42.10011697719097" lon="-1.4195674524408537"><ele>379.0</ele><time>2026-03-31T08:29:49Z</time></trkpt><trkpt lat="42.100037764296665" lon="-1.4198619638907648"><ele>377.5</ele><time>2026-03-31T08:29:50Z</time></trkpt><trkpt lat="42.0999578860013" lon="-1.4201553173731005"><ele>376.0</ele><time>2026-03-31T08:29:51Z</time></trkpt><trkpt lat="42.09987706839538" lon="-1.4204470136913987"><ele>376.5</ele><time>2026-03-31T08:29:52Z</time></trkpt><trkpt lat="42.099794044911924" lon="-1.4207360654222578"><ele>377.0</ele><time>2026-03-31T08:29:53Z</time></trkpt><trkpt lat="42.099715563966534" lon="-1.4210231296748512"><ele>377.0</ele><time>2026-03-31T08:29:54Z</time></trkpt><trkpt lat="42.09963516725483" lon="-1.4213064498283376"><ele>377.0</ele><time>2026-03-31T08:29:55Z</time></trkpt><trkpt lat="42.09956131009776" lon="-1.4215917984178812"><ele>377.0</ele><time>2026-03-31T08:29:56Z</time></trkpt><trkpt lat="42.09948820644386" lon="-1.4218765495816188"><ele>378.33333333333337</ele><time>2026-03-31T08:29:57Z</time></trkpt><trkpt lat="42.09940790914234" lon="-1.422157302646041"><ele>379.6666666666667</ele><time>2026-03-31T08:29:58Z</time></trkpt><trkpt lat="42.099322944657295" lon="-1.4224343641059578"><ele>381.0</ele><time>2026-03-31T08:29:59Z</time></trkpt><trkpt lat="42.09923396510245" lon="-1.4227139761338163"><ele>381.0</ele><time>2026-03-31T08:30:00Z</time></trkpt><trkpt lat="42.09914598672947" lon="-1.4230051927857654"><ele>381.0</ele><time>2026-03-31T08:30:01Z</time></trkpt><trkpt lat="42.09905583708058" lon="-1.423296738797469"><ele>378.0</ele><time>2026-03-31T08:30:02Z</time></trkpt><trkpt lat="42.09894643745057" lon="-1.4235736000568844"><ele>375.0</ele><time>2026-03-31T08:30:02.999Z</time></trkpt><trkpt lat="42.098841228903865" lon="-1.4238598636771491"><ele>375.0</ele><time>2026-03-31T08:30:04Z</time></trkpt><trkpt lat="42.098733468883395" lon="-1.4241508964702896"><ele>375.0</ele><time>2026-03-31T08:30:05Z</time></trkpt><trkpt lat="42.09862704697891" lon="-1.4244310045800894"><ele>376.5</ele><time>2026-03-31T08:30:06Z</time></trkpt><trkpt lat="42.098515274517375" lon="-1.424710003211662"><ele>378.0</ele><time>2026-03-31T08:30:07Z</time></trkpt><trkpt lat="42.098396681682985" lon="-1.4249764679598644"><ele>378.0</ele><time>2026-03-31T08:30:08Z</time></trkpt><trkpt lat="42.09827205697103" lon="-1.4252430941414236"><ele>378.0</ele><time>2026-03-31T08:30:09Z</time></trkpt><trkpt lat="42.098152229707964" lon="-1.425502940071982"><ele>376.0</ele><time>2026-03-31T08:30:10Z</time></trkpt><trkpt lat="42.098032465313615" lon="-1.4257592508063344"><ele>374.0</ele><time>2026-03-31T08:30:11Z</time></trkpt><trkpt lat="42.09790357078612" lon="-1.4260163208423866"><ele>374.0</ele><time>2026-03-31T08:30:12Z</time></trkpt><trkpt lat="42.09777509535908" lon="-1.4262629973435264"><ele>374.0</ele><time>2026-03-31T08:30:13Z</time></trkpt><trkpt lat="42.09764028453161" lon="-1.4265180350765136"><ele>373.0</ele><time>2026-03-31T08:30:14Z</time></trkpt><trkpt lat="42.09749883675813" lon="-1.4267741933414617"><ele>372.0</ele><time>2026-03-31T08:30:15Z</time></trkpt><trkpt lat="42.09735441161315" lon="-1.4270293520065973"><ele>372.0</ele><time>2026-03-31T08:30:16Z</time></trkpt><trkpt lat="42.097210650363415" lon="-1.4272813734860201"><ele>372.0</ele><time>2026-03-31T08:30:17Z</time></trkpt><trkpt lat="42.09706976185466" lon="-1.4275296322918687"><ele>372.0</ele><time>2026-03-31T08:30:18Z</time></trkpt><trkpt lat="42.09692683368468" lon="-1.427781251051886"><ele>372.0</ele><time>2026-03-31T08:30:19Z</time></trkpt><trkpt lat="42.09678290716925" lon="-1.4280224479032142"><ele>371.0</ele><time>2026-03-31T08:30:20Z</time></trkpt><trkpt lat="42.096643845680546" lon="-1.4282596650672252"><ele>370.0</ele><time>2026-03-31T08:30:21Z</time></trkpt><trkpt lat="42.0965041595297" lon="-1.428505300134888"><ele>370.0</ele><time>2026-03-31T08:30:22Z</time></trkpt><trkpt lat="42.096364733003455" lon="-1.4287525148145772"><ele>370.0</ele><time>2026-03-31T08:30:23Z</time></trkpt><trkpt lat="42.096231091105125" lon="-1.4290024946105622"><ele>373.5</ele><time>2026-03-31T08:30:24Z</time></trkpt><trkpt lat="42.09609496682554" lon="-1.4292472087058248"><ele>377.0</ele><time>2026-03-31T08:30:25Z</time></trkpt><trkpt lat="42.09595197103032" lon="-1.4294889969479843"><ele>379.0</ele><time>2026-03-31T08:30:26Z</time></trkpt><trkpt lat="42.09581029977537" lon="-1.4297283775132121"><ele>381.0</ele><time>2026-03-31T08:30:27Z</time></trkpt><trkpt lat="42.09566566327492" lon="-1.4299737039992904"><ele>378.5</ele><time>2026-03-31T08:30:28Z</time></trkpt><trkpt lat="42.095520973447876" lon="-1.430223945461619"><ele>376.0</ele><time>2026-03-31T08:30:29Z</time></trkpt><trkpt lat="42.09537655267337" lon="-1.430476729623523"><ele>376.0</ele><time>2026-03-31T08:30:30Z</time></trkpt><trkpt lat="42.09523726533976" lon="-1.430723274555073"><ele>376.0</ele><time>2026-03-31T08:30:31Z</time></trkpt><trkpt lat="42.095093846191894" lon="-1.4309731933938759"><ele>376.0</ele><time>2026-03-31T08:30:32Z</time></trkpt><trkpt lat="42.09494600229247" lon="-1.431222449034362"><ele>376.0</ele><time>2026-03-31T08:30:33Z</time></trkpt><trkpt lat="42.09479803345252" lon="-1.4314681535473668"><ele>371.5</ele><time>2026-03-31T08:30:34Z</time></trkpt><trkpt lat="42.094658857471074" lon="-1.4317119034619026"><ele>367.0</ele><time>2026-03-31T08:30:35Z</time></trkpt><trkpt lat="42.094520726782505" lon="-1.4319627462597988"><ele>368.5</ele><time>2026-03-31T08:30:36Z</time></trkpt><trkpt lat="42.09438549764271" lon="-1.432217490202723"><ele>370.0</ele><time>2026-03-31T08:30:37Z</time></trkpt><trkpt lat="42.09425992387522" lon="-1.4324783399532817"><ele>370.0</ele><time>2026-03-31T08:30:38Z</time></trkpt><trkpt lat="42.09413120887969" lon="-1.4327405574803462"><ele>370.0</ele><time>2026-03-31T08:30:39Z</time></trkpt><trkpt lat="42.09400191213215" lon="-1.4330003291216982"><ele>368.0</ele><time>2026-03-31T08:30:40Z</time></trkpt><trkpt lat="42.09388275967209" lon="-1.4332684773961182"><ele>366.0</ele><time>2026-03-31T08:30:41Z</time></trkpt><trkpt lat="42.093764044247834" lon="-1.433545939198852"><ele>367.0</ele><time>2026-03-31T08:30:42Z</time></trkpt><trkpt lat="42.093638715824284" lon="-1.4338239500990566"><ele>368.0</ele><time>2026-03-31T08:30:43Z</time></trkpt><trkpt lat="42.09351514253634" lon="-1.4341059907779683"><ele>368.0</ele><time>2026-03-31T08:30:44Z</time></trkpt><trkpt lat="42.0934059859197" lon="-1.434399324205568"><ele>368.0</ele><time>2026-03-31T08:30:45Z</time></trkpt><trkpt lat="42.09329360435498" lon="-1.4346992407994228"><ele>366.5</ele><time>2026-03-31T08:30:46Z</time></trkpt><trkpt lat="42.09318996502306" lon="-1.4349917998232369"><ele>365.0</ele><time>2026-03-31T08:30:47Z</time></trkpt><trkpt lat="42.09309176391044" lon="-1.4352841179285998"><ele>365.5</ele><time>2026-03-31T08:30:48Z</time></trkpt><trkpt lat="42.09299161674004" lon="-1.4355704034926031"><ele>366.0</ele><time>2026-03-31T08:30:49Z</time></trkpt><trkpt lat="42.09289496567642" lon="-1.4358557317274718"><ele>366.0</ele><time>2026-03-31T08:30:50Z</time></trkpt><trkpt lat="42.09280755869655" lon="-1.4361443369737086"><ele>366.0</ele><time>2026-03-31T08:30:51Z</time></trkpt><trkpt lat="42.09272242161107" lon="-1.4364322131909548"><ele>365.0</ele><time>2026-03-31T08:30:52Z</time></trkpt><trkpt lat="42.092641918215406" lon="-1.436728047360321"><ele>364.0</ele><time>2026-03-31T08:30:53Z</time></trkpt><trkpt lat="42.092572446139734" lon="-1.4370259125669533"><ele>363.5</ele><time>2026-03-31T08:30:54Z</time></trkpt><trkpt lat="42.09250105877422" lon="-1.43732054120985"><ele>363.0</ele><time>2026-03-31T08:30:55Z</time></trkpt><trkpt lat="42.09242711491802" lon="-1.43762201532376"><ele>362.0</ele><time>2026-03-31T08:30:56Z</time></trkpt><trkpt lat="42.09236025211899" lon="-1.4379175592796465"><ele>361.0</ele><time>2026-03-31T08:30:57Z</time></trkpt><trkpt lat="42.09229938377188" lon="-1.4382197999313189"><ele>360.0</ele><time>2026-03-31T08:30:58Z</time></trkpt><trkpt lat="42.09224344573651" lon="-1.43852590925964"><ele>359.0</ele><time>2026-03-31T08:30:59Z</time></trkpt><trkpt lat="42.092187498907876" lon="-1.4388271283807508"><ele>359.0</ele><time>2026-03-31T08:31:00Z</time></trkpt><trkpt lat="42.09212882233488" lon="-1.4391370681470115"><ele>359.0</ele><time>2026-03-31T08:31:01Z</time></trkpt><trkpt lat="42.092069419714456" lon="-1.4394408707396489"><ele>360.0</ele><time>2026-03-31T08:31:02Z</time></trkpt><trkpt lat="42.09201351750981" lon="-1.4397441223291763"><ele>361.0</ele><time>2026-03-31T08:31:03Z</time></trkpt><trkpt lat="42.0919519992556" lon="-1.4400475158497863"><ele>361.0</ele><time>2026-03-31T08:31:04Z</time></trkpt><trkpt lat="42.09189040521963" lon="-1.4403501822705689"><ele>361.0</ele><time>2026-03-31T08:31:05Z</time></trkpt><trkpt lat="42.09184214722831" lon="-1.440657175598701"><ele>360.5</ele><time>2026-03-31T08:31:06Z</time></trkpt><trkpt lat="42.09178439646749" lon="-1.440967231680233"><ele>360.0</ele><time>2026-03-31T08:31:07Z</time></trkpt><trkpt lat="42.09172293099548" lon="-1.4412783684325055"><ele>360.0</ele><time>2026-03-31T08:31:08Z</time></trkpt><trkpt lat="42.09167399746173" lon="-1.4415917340755422"><ele>360.0</ele><time>2026-03-31T08:31:09Z</time></trkpt><trkpt lat="42.09162113123573" lon="-1.4419085326413217"><ele>358.5</ele><time>2026-03-31T08:31:10Z</time></trkpt><trkpt lat="42.09155269768581" lon="-1.4422282418665302"><ele>357.0</ele><time>2026-03-31T08:31:11Z</time></trkpt><trkpt lat="42.091483811836696" lon="-1.4425480622773752"><ele>357.0</ele><time>2026-03-31T08:31:12Z</time></trkpt><trkpt lat="42.09142330508625" lon="-1.442868505776196"><ele>357.0</ele><time>2026-03-31T08:31:13Z</time></trkpt><trkpt lat="42.09135123994631" lon="-1.443195275788623"><ele>357.0</ele><time>2026-03-31T08:31:14Z</time></trkpt><trkpt lat="42.09126936466836" lon="-1.4435079584976238"><ele>357.0</ele><time>2026-03-31T08:31:15Z</time></trkpt><trkpt lat="42.09118738300018" lon="-1.443812352214524"><ele>357.0</ele><time>2026-03-31T08:31:16Z</time></trkpt><trkpt lat="42.09110687502837" lon="-1.444122459016904"><ele>357.0</ele><time>2026-03-31T08:31:17Z</time></trkpt><trkpt lat="42.091022565199765" lon="-1.4444236764496734"><ele>357.5</ele><time>2026-03-31T08:31:18Z</time></trkpt><trkpt lat="42.090931672444306" lon="-1.4447214556755135"><ele>358.0</ele><time>2026-03-31T08:31:19Z</time></trkpt><trkpt lat="42.09083685933267" lon="-1.4450148272990444"><ele>357.0</ele><time>2026-03-31T08:31:20Z</time></trkpt><trkpt lat="42.090736817511846" lon="-1.4453056940871531"><ele>356.0</ele><time>2026-03-31T08:31:21Z</time></trkpt><trkpt lat="42.090630870817066" lon="-1.4455966629570451"><ele>356.0</ele><time>2026-03-31T08:31:22Z</time></trkpt><trkpt lat="42.090518336405516" lon="-1.445883891007699"><ele>356.0</ele><time>2026-03-31T08:31:23Z</time></trkpt><trkpt lat="42.09040730300994" lon="-1.4461672114723128"><ele>356.0</ele><time>2026-03-31T08:31:24Z</time></trkpt><trkpt lat="42.09029181783937" lon="-1.4464480530090653"><ele>356.0</ele><time>2026-03-31T08:31:25Z</time></trkpt><trkpt lat="42.09017671740477" lon="-1.4467154147729333"><ele>356.0</ele><time>2026-03-31T08:31:26Z</time></trkpt><trkpt lat="42.09005783168034" lon="-1.4469872613461423"><ele>356.0</ele><time>2026-03-31T08:31:27Z</time></trkpt><trkpt lat="42.089943212561074" lon="-1.4472565915967757"><ele>355.0</ele><time>2026-03-31T08:31:28Z</time></trkpt><trkpt lat="42.08982097085741" lon="-1.4475259735515777"><ele>354.0</ele><time>2026-03-31T08:31:29Z</time></trkpt><trkpt lat="42.089687336543456" lon="-1.447797830346419"><ele>354.0</ele><time>2026-03-31T08:31:30Z</time></trkpt><trkpt lat="42.08955666035309" lon="-1.4480692197814264"><ele>354.0</ele><time>2026-03-31T08:31:31Z</time></trkpt><trkpt lat="42.0894336899791" lon="-1.448347747369574"><ele>354.0</ele><time>2026-03-31T08:31:32Z</time></trkpt><trkpt lat="42.08930812721073" lon="-1.4486314541265808"><ele>354.0</ele><time>2026-03-31T08:31:33Z</time></trkpt><trkpt lat="42.089185343547705" lon="-1.448905598990667"><ele>355.5</ele><time>2026-03-31T08:31:34Z</time></trkpt><trkpt lat="42.08905527448406" lon="-1.449180572012053"><ele>357.0</ele><time>2026-03-31T08:31:35Z</time></trkpt><trkpt lat="42.08893014991164" lon="-1.4494549038876285"><ele>357.5</ele><time>2026-03-31T08:31:36Z</time></trkpt><trkpt lat="42.08882462052845" lon="-1.449736605378173"><ele>358.0</ele><time>2026-03-31T08:31:37Z</time></trkpt><trkpt lat="42.08872844855991" lon="-1.4500314300408217"><ele>358.0</ele><time>2026-03-31T08:31:38Z</time></trkpt><trkpt lat="42.08864145332363" lon="-1.4503423856968505"><ele>358.0</ele><time>2026-03-31T08:31:39Z</time></trkpt><trkpt lat="42.08856411634338" lon="-1.4506648699824827"><ele>358.0</ele><time>2026-03-31T08:31:40Z</time></trkpt><trkpt lat="42.08850585338945" lon="-1.4509728581130086"><ele>358.0</ele><time>2026-03-31T08:31:41Z</time></trkpt><trkpt lat="42.08845063025821" lon="-1.4513001442815916"><ele>358.0</ele><time>2026-03-31T08:31:42Z</time></trkpt><trkpt lat="42.08841087683508" lon="-1.451625327629235"><ele>358.0</ele><time>2026-03-31T08:31:43Z</time></trkpt><trkpt lat="42.08838798989988" lon="-1.4519500605520694"><ele>359.0</ele><time>2026-03-31T08:31:44Z</time></trkpt><trkpt lat="42.08837814800301" lon="-1.4522713775747276"><ele>360.0</ele><time>2026-03-31T08:31:45Z</time></trkpt><trkpt lat="42.08838198000802" lon="-1.4525934883059817"><ele>360.0</ele><time>2026-03-31T08:31:46Z</time></trkpt><trkpt lat="42.088395657029345" lon="-1.4529160165891926"><ele>360.0</ele><time>2026-03-31T08:31:47Z</time></trkpt><trkpt lat="42.08841472136529" lon="-1.4532442333925901"><ele>359.5</ele><time>2026-03-31T08:31:48Z</time></trkpt><trkpt lat="42.08844309218224" lon="-1.4535597072103839"><ele>359.0</ele><time>2026-03-31T08:31:49Z</time></trkpt><trkpt lat="42.08847417930298" lon="-1.4538747671280274"><ele>358.0</ele><time>2026-03-31T08:31:50Z</time></trkpt><trkpt lat="42.088506865862094" lon="-1.4541904663989111"><ele>357.0</ele><time>2026-03-31T08:31:51Z</time></trkpt><trkpt lat="42.08853688961406" lon="-1.4545059131330735"><ele>357.0</ele><time>2026-03-31T08:31:52Z</time></trkpt><trkpt lat="42.08856240337457" lon="-1.4548215319845614"><ele>357.0</ele><time>2026-03-31T08:31:53Z</time></trkpt><trkpt lat="42.088589138027295" lon="-1.4551395945038719"><ele>357.0</ele><time>2026-03-31T08:31:54Z</time></trkpt><trkpt lat="42.08862686491003" lon="-1.455450858540045"><ele>357.0</ele><time>2026-03-31T08:31:55Z</time></trkpt><trkpt lat="42.08865812075805" lon="-1.4557758433161052"><ele>358.5</ele><time>2026-03-31T08:31:56Z</time></trkpt><trkpt lat="42.0886766497919" lon="-1.4561111737618562"><ele>360.0</ele><time>2026-03-31T08:31:57Z</time></trkpt><trkpt lat="42.08870097066345" lon="-1.456444233717122"><ele>360.0</ele><time>2026-03-31T08:31:58Z</time></trkpt><trkpt lat="42.088732905018055" lon="-1.4567653688202893"><ele>360.0</ele><time>2026-03-31T08:31:59Z</time></trkpt><trkpt lat="42.0887679394062" lon="-1.4570803554726324"><ele>360.0</ele><time>2026-03-31T08:32:00Z</time></trkpt><trkpt lat="42.088796250078055" lon="-1.457395659614229"><ele>360.0</ele><time>2026-03-31T08:32:01Z</time></trkpt><trkpt lat="42.088820425353674" lon="-1.4577138827012153"><ele>360.5</ele><time>2026-03-31T08:32:02Z</time></trkpt><trkpt lat="42.0888553286091" lon="-1.4580337422670824"><ele>361.0</ele><time>2026-03-31T08:32:03Z</time></trkpt><trkpt lat="42.08888839075097" lon="-1.4583555237354138"><ele>361.0</ele><time>2026-03-31T08:32:04Z</time></trkpt><trkpt lat="42.08891037394577" lon="-1.458683581686445"><ele>361.0</ele><time>2026-03-31T08:32:05Z</time></trkpt><trkpt lat="42.08893408334558" lon="-1.4590198884460348"><ele>361.5</ele><time>2026-03-31T08:32:06Z</time></trkpt><trkpt lat="42.08896275071113" lon="-1.4593556254055107"><ele>362.0</ele><time>2026-03-31T08:32:07Z</time></trkpt><trkpt lat="42.08899673904612" lon="-1.4596882699469933"><ele>364.0</ele><time>2026-03-31T08:32:08Z</time></trkpt><trkpt lat="42.08903033879443" lon="-1.4600114671040516"><ele>366.0</ele><time>2026-03-31T08:32:09Z</time></trkpt><trkpt lat="42.08905606376477" lon="-1.4603327848364325"><ele>367.5</ele><time>2026-03-31T08:32:10Z</time></trkpt><trkpt lat="42.089084138609664" lon="-1.4606590457700437"><ele>369.0</ele><time>2026-03-31T08:32:11Z</time></trkpt><trkpt lat="42.08911678734587" lon="-1.4609897984613913"><ele>364.0</ele><time>2026-03-31T08:32:12Z</time></trkpt><trkpt lat="42.089144590202444" lon="-1.461310890802087"><ele>359.0</ele><time>2026-03-31T08:32:13Z</time></trkpt><trkpt lat="42.08917308846911" lon="-1.4616368648005764"><ele>359.0</ele><time>2026-03-31T08:32:14.001Z</time></trkpt><trkpt lat="42.089202784912146" lon="-1.461961685377684"><ele>359.0</ele><time>2026-03-31T08:32:15Z</time></trkpt><trkpt lat="42.08922829372251" lon="-1.462292894591088"><ele>358.0</ele><time>2026-03-31T08:32:16Z</time></trkpt><trkpt lat="42.089254884188534" lon="-1.4626125409067334"><ele>357.0</ele><time>2026-03-31T08:32:17Z</time></trkpt><trkpt lat="42.08928408219382" lon="-1.4629350309497078"><ele>357.0</ele><time>2026-03-31T08:32:18Z</time></trkpt><trkpt lat="42.08931298054671" lon="-1.4632571357614066"><ele>357.0</ele><time>2026-03-31T08:32:19Z</time></trkpt><trkpt lat="42.08933865359465" lon="-1.4635775622578755"><ele>357.0</ele><time>2026-03-31T08:32:20Z</time></trkpt><trkpt lat="42.08936817759402" lon="-1.4638993075339648"><ele>357.0</ele><time>2026-03-31T08:32:21Z</time></trkpt><trkpt lat="42.08940166339794" lon="-1.4642106874566032"><ele>357.0</ele><time>2026-03-31T08:32:22Z</time></trkpt><trkpt lat="42.08943220570595" lon="-1.4645214561050284"><ele>357.0</ele><time>2026-03-31T08:32:23Z</time></trkpt><trkpt lat="42.08945350173871" lon="-1.464840529865581"><ele>358.0</ele><time>2026-03-31T08:32:24Z</time></trkpt><trkpt lat="42.08947607049198" lon="-1.465154569998335"><ele>359.0</ele><time>2026-03-31T08:32:25Z</time></trkpt><trkpt lat="42.089509396333696" lon="-1.4654680919017644"><ele>359.0</ele><time>2026-03-31T08:32:26Z</time></trkpt><trkpt lat="42.089546266044856" lon="-1.4657786433372388"><ele>359.0</ele><time>2026-03-31T08:32:27Z</time></trkpt><trkpt lat="42.08957511572179" lon="-1.4660940180287945"><ele>358.5</ele><time>2026-03-31T08:32:28Z</time></trkpt><trkpt lat="42.0895912737886" lon="-1.4664078521055868"><ele>358.0</ele><time>2026-03-31T08:32:29Z</time></trkpt><trkpt lat="42.08961927349404" lon="-1.466727571268241"><ele>358.0</ele><time>2026-03-31T08:32:30Z</time></trkpt><trkpt lat="42.089670169730105" lon="-1.4670336613497195"><ele>358.0</ele><time>2026-03-31T08:32:31Z</time></trkpt><trkpt lat="42.08972485391137" lon="-1.4673345326145097"><ele>360.5</ele><time>2026-03-31T08:32:32Z</time></trkpt><trkpt lat="42.089761655284896" lon="-1.4676385953719577"><ele>363.0</ele><time>2026-03-31T08:32:33Z</time></trkpt><trkpt lat="42.08979442717976" lon="-1.467945758230209"><ele>364.0</ele><time>2026-03-31T08:32:34Z</time></trkpt><trkpt lat="42.08983851737033" lon="-1.468241844610937"><ele>365.0</ele><time>2026-03-31T08:32:35Z</time></trkpt><trkpt lat="42.08989582115615" lon="-1.468532033929671"><ele>366.0</ele><time>2026-03-31T08:32:36Z</time></trkpt><trkpt lat="42.08994737367339" lon="-1.4688216255975637"><ele>361.5</ele><time>2026-03-31T08:32:37Z</time></trkpt><trkpt lat="42.08999838539991" lon="-1.4691154714050325"><ele>357.0</ele><time>2026-03-31T08:32:38Z</time></trkpt><trkpt lat="42.09006037877761" lon="-1.46940885718761"><ele>357.5</ele><time>2026-03-31T08:32:39Z</time></trkpt><trkpt lat="42.090115815117926" lon="-1.4697105590515072"><ele>358.0</ele><time>2026-03-31T08:32:40Z</time></trkpt><trkpt lat="42.090160425637734" lon="-1.4700104280856365"><ele>358.0</ele><time>2026-03-31T08:32:41Z</time></trkpt><trkpt lat="42.09019417435895" lon="-1.470310399203806"><ele>358.0</ele><time>2026-03-31T08:32:42Z</time></trkpt><trkpt lat="42.09020264934538" lon="-1.4706119395698112"><ele>358.0</ele><time>2026-03-31T08:32:43Z</time></trkpt><trkpt lat="42.09019464715936" lon="-1.470919180391141"><ele>356.0</ele><time>2026-03-31T08:32:44Z</time></trkpt><trkpt lat="42.09017553808667" lon="-1.4712236202451798"><ele>354.0</ele><time>2026-03-31T08:32:45Z</time></trkpt><trkpt lat="42.090131274939836" lon="-1.4715340808340485"><ele>353.5</ele><time>2026-03-31T08:32:46Z</time></trkpt><trkpt lat="42.09008796535039" lon="-1.4718401531697536"><ele>353.0</ele><time>2026-03-31T08:32:47Z</time></trkpt><trkpt lat="42.090044112313706" lon="-1.4721469894909682"><ele>353.0</ele><time>2026-03-31T08:32:48Z</time></trkpt><trkpt lat="42.0900057731719" lon="-1.472455199041944"><ele>353.0</ele><time>2026-03-31T08:32:49Z</time></trkpt><trkpt lat="42.08998130164523" lon="-1.4727748733450587"><ele>351.5</ele><time>2026-03-31T08:32:50Z</time></trkpt><trkpt lat="42.089968403054954" lon="-1.4730898153782854"><ele>350.0</ele><time>2026-03-31T08:32:51Z</time></trkpt><trkpt lat="42.089960110646125" lon="-1.4734051524788312"><ele>350.0</ele><time>2026-03-31T08:32:52Z</time></trkpt><trkpt lat="42.08995493565085" lon="-1.4737213457704383"><ele>350.0</ele><time>2026-03-31T08:32:53Z</time></trkpt><trkpt lat="42.08995050099222" lon="-1.47403604156759"><ele>351.0</ele><time>2026-03-31T08:32:54Z</time></trkpt><trkpt lat="42.08994327145698" lon="-1.4743461528890092"><ele>352.0</ele><time>2026-03-31T08:32:55Z</time></trkpt><trkpt lat="42.089922144951416" lon="-1.4746521409531805"><ele>352.0</ele><time>2026-03-31T08:32:56Z</time></trkpt><trkpt lat="42.08986781051742" lon="-1.4749517981475229"><ele>352.0</ele><time>2026-03-31T08:32:57Z</time></trkpt><trkpt lat="42.089779289418004" lon="-1.475241038350548"><ele>349.5</ele><time>2026-03-31T08:32:58Z</time></trkpt><trkpt lat="42.089662530521124" lon="-1.4755212925091552"><ele>347.0</ele><time>2026-03-31T08:32:59Z</time></trkpt><trkpt lat="42.08955259030168" lon="-1.4758144591985407"><ele>347.0</ele><time>2026-03-31T08:33:00Z</time></trkpt><trkpt lat="42.08945805076316" lon="-1.4761089644447314"><ele>347.0</ele><time>2026-03-31T08:33:01Z</time></trkpt><trkpt lat="42.089350441949726" lon="-1.4763928746298707"><ele>345.5</ele><time>2026-03-31T08:33:02Z</time></trkpt><trkpt lat="42.08924685268991" lon="-1.4766733330888195"><ele>344.0</ele><time>2026-03-31T08:33:03Z</time></trkpt><trkpt lat="42.08916703392864" lon="-1.4769701071085022"><ele>341.5</ele><time>2026-03-31T08:33:04Z</time></trkpt><trkpt lat="42.08910173463633" lon="-1.4772676297551366"><ele>339.0</ele><time>2026-03-31T08:33:05Z</time></trkpt><trkpt lat="42.089040449504914" lon="-1.4775731379912918"><ele>341.0</ele><time>2026-03-31T08:33:06Z</time></trkpt><trkpt lat="42.08899656298811" lon="-1.4778742661447095"><ele>343.0</ele><time>2026-03-31T08:33:07Z</time></trkpt><trkpt lat="42.088918446026874" lon="-1.4781597074434722"><ele>343.0</ele><time>2026-03-31T08:33:08Z</time></trkpt><trkpt lat="42.088798295894506" lon="-1.4784268816938317"><ele>343.0</ele><time>2026-03-31T08:33:09Z</time></trkpt><trkpt lat="42.08866409733523" lon="-1.4786927211135492"><ele>340.0</ele><time>2026-03-31T08:33:10Z</time></trkpt><trkpt lat="42.08854032551766" lon="-1.4789692512168002"><ele>337.0</ele><time>2026-03-31T08:33:11Z</time></trkpt><trkpt lat="42.08842190081712" lon="-1.4792412244389057"><ele>337.0</ele><time>2026-03-31T08:33:12Z</time></trkpt><trkpt lat="42.08829311798826" lon="-1.479505427616056"><ele>337.0</ele><time>2026-03-31T08:33:13Z</time></trkpt><trkpt lat="42.08817261552498" lon="-1.4797767782162177"><ele>340.5</ele><time>2026-03-31T08:33:14Z</time></trkpt><trkpt lat="42.08807314204743" lon="-1.4800598102091818"><ele>344.0</ele><time>2026-03-31T08:33:15Z</time></trkpt><trkpt lat="42.087971991801595" lon="-1.480338513921136"><ele>341.5</ele><time>2026-03-31T08:33:16Z</time></trkpt><trkpt lat="42.08790593888393" lon="-1.4806354765179475"><ele>339.0</ele><time>2026-03-31T08:33:17Z</time></trkpt><trkpt lat="42.087829089231036" lon="-1.4809248865061404"><ele>339.0</ele><time>2026-03-31T08:33:18Z</time></trkpt><trkpt lat="42.08776642643238" lon="-1.4812214033238236"><ele>339.0</ele><time>2026-03-31T08:33:19Z</time></trkpt><trkpt lat="42.087692196805925" lon="-1.4815158173105942"><ele>336.5</ele><time>2026-03-31T08:33:20Z</time></trkpt><trkpt lat="42.08761786557775" lon="-1.4818102645040472"><ele>334.0</ele><time>2026-03-31T08:33:21Z</time></trkpt><trkpt lat="42.08754470824174" lon="-1.4821062607993865"><ele>332.5</ele><time>2026-03-31T08:33:22Z</time></trkpt><trkpt lat="42.08747381084297" lon="-1.4824022243190051"><ele>331.0</ele><time>2026-03-31T08:33:23Z</time></trkpt><trkpt lat="42.0874058539688" lon="-1.4826950642758234"><ele>333.3333333333333</ele><time>2026-03-31T08:33:24Z</time></trkpt><trkpt lat="42.087337653044166" lon="-1.4829799010180615"><ele>335.6666666666667</ele><time>2026-03-31T08:33:25Z</time></trkpt><trkpt lat="42.087270270437536" lon="-1.4832664080110045"><ele>338.0</ele><time>2026-03-31T08:33:26Z</time></trkpt><trkpt lat="42.08725576841049" lon="-1.483567551958058"><ele>339.0</ele><time>2026-03-31T08:33:27Z</time></trkpt><trkpt lat="42.08724525400819" lon="-1.4838812812259456"><ele>340.0</ele><time>2026-03-31T08:33:28Z</time></trkpt><trkpt lat="42.08725795753606" lon="-1.484199872306657"><ele>340.0</ele><time>2026-03-31T08:33:29Z</time></trkpt><trkpt lat="42.08729541166587" lon="-1.4845207247582453"><ele>340.0</ele><time>2026-03-31T08:33:30Z</time></trkpt><trkpt lat="42.087333870724585" lon="-1.4848472667891441"><ele>342.0</ele><time>2026-03-31T08:33:31Z</time></trkpt><trkpt lat="42.08739351998509" lon="-1.4851711504514449"><ele>344.0</ele><time>2026-03-31T08:33:32Z</time></trkpt><trkpt lat="42.08744469467059" lon="-1.4854944394100376"><ele>337.5</ele><time>2026-03-31T08:33:33Z</time></trkpt><trkpt lat="42.08749383003439" lon="-1.4858143122521932"><ele>331.0</ele><time>2026-03-31T08:33:34Z</time></trkpt><trkpt lat="42.087538954482824" lon="-1.4861381867864276"><ele>333.0</ele><time>2026-03-31T08:33:35Z</time></trkpt><trkpt lat="42.087590469304835" lon="-1.4864593610024606"><ele>335.0</ele><time>2026-03-31T08:33:36Z</time></trkpt><trkpt lat="42.08764910932992" lon="-1.4867687234614224"><ele>335.0</ele><time>2026-03-31T08:33:37Z</time></trkpt><trkpt lat="42.08772983109367" lon="-1.487058236448775"><ele>335.0</ele><time>2026-03-31T08:33:38Z</time></trkpt><trkpt lat="42.087834912147606" lon="-1.4873476172636468"><ele>338.5</ele><time>2026-03-31T08:33:39Z</time></trkpt><trkpt lat="42.087963322942045" lon="-1.487613151803726"><ele>342.0</ele><time>2026-03-31T08:33:40Z</time></trkpt><trkpt lat="42.088096222092695" lon="-1.487869563122752"><ele>346.0</ele><time>2026-03-31T08:33:41Z</time></trkpt><trkpt lat="42.08822344354459" lon="-1.488125550790205"><ele>350.0</ele><time>2026-03-31T08:33:42Z</time></trkpt><trkpt lat="42.0883514027556" lon="-1.4883798888537114"><ele>344.0</ele><time>2026-03-31T08:33:43Z</time></trkpt><trkpt lat="42.08847643585055" lon="-1.488629253942934"><ele>338.0</ele><time>2026-03-31T08:33:44Z</time></trkpt><trkpt lat="42.088581777657275" lon="-1.48889417850077"><ele>332.0</ele><time>2026-03-31T08:33:45Z</time></trkpt><trkpt lat="42.08864940165884" lon="-1.4891774672191338"><ele>332.0</ele><time>2026-03-31T08:33:46.001Z</time></trkpt><trkpt lat="42.088708327966216" lon="-1.489471995236721"><ele>332.0</ele><time>2026-03-31T08:33:47.001Z</time></trkpt><trkpt lat="42.08874043017898" lon="-1.489778452826039"><ele>335.0</ele><time>2026-03-31T08:33:48.001Z</time></trkpt><trkpt lat="42.088751250939964" lon="-1.4900875558573838"><ele>338.0</ele><time>2026-03-31T08:33:49.001Z</time></trkpt><trkpt lat="42.08877207998799" lon="-1.4903962021151311"><ele>338.0</ele><time>2026-03-31T08:33:50.001Z</time></trkpt><trkpt lat="42.08882926977118" lon="-1.4906889853228484"><ele>338.0</ele><time>2026-03-31T08:33:51.001Z</time></trkpt><trkpt lat="42.088900175713306" lon="-1.4909858395748414"><ele>339.0</ele><time>2026-03-31T08:33:52.001Z</time></trkpt><trkpt lat="42.088986547585534" lon="-1.4912783405493355"><ele>340.0</ele><time>2026-03-31T08:33:53.001Z</time></trkpt><trkpt lat="42.08908449545979" lon="-1.491566175450566"><ele>335.0</ele><time>2026-03-31T08:33:54.001Z</time></trkpt><trkpt lat="42.08919197660417" lon="-1.49185282131222"><ele>330.0</ele><time>2026-03-31T08:33:55.001Z</time></trkpt><trkpt lat="42.08929213653059" lon="-1.492140521658709"><ele>330.0</ele><time>2026-03-31T08:33:56.001Z</time></trkpt><trkpt lat="42.08938541426603" lon="-1.4924304603887306"><ele>330.0</ele><time>2026-03-31T08:33:57.001Z</time></trkpt><trkpt lat="42.08949039819844" lon="-1.4927140324050128"><ele>331.5</ele><time>2026-03-31T08:33:58.001Z</time></trkpt><trkpt lat="42.089597758655856" lon="-1.4929984352842633"><ele>333.0</ele><time>2026-03-31T08:33:59.001Z</time></trkpt><trkpt lat="42.0896916871525" lon="-1.4932971721521497"><ele>333.0</ele><time>2026-03-31T08:34:00Z</time></trkpt><trkpt lat="42.089777432510395" lon="-1.4936017153379906"><ele>333.0</ele><time>2026-03-31T08:34:01Z</time></trkpt><trkpt lat="42.08986295994615" lon="-1.4939038051547768"><ele>329.0</ele><time>2026-03-31T08:34:02.001Z</time></trkpt><trkpt lat="42.08994008153031" lon="-1.4942054449425455"><ele>325.0</ele><time>2026-03-31T08:34:03.001Z</time></trkpt><trkpt lat="42.08999668871644" lon="-1.4945216534822365"><ele>324.0</ele><time>2026-03-31T08:34:04.001Z</time></trkpt><trkpt lat="42.09004691411965" lon="-1.4948373536668444"><ele>323.0</ele><time>2026-03-31T08:34:05.001Z</time></trkpt><trkpt lat="42.09010758052472" lon="-1.4951497830686813"><ele>323.0</ele><time>2026-03-31T08:34:06.001Z</time></trkpt><trkpt lat="42.090166302247795" lon="-1.4954634673137472"><ele>323.0</ele><time>2026-03-31T08:34:07.001Z</time></trkpt><trkpt lat="42.090218194162354" lon="-1.4957648172752331"><ele>323.0</ele><time>2026-03-31T08:34:08.001Z</time></trkpt><trkpt lat="42.090267181672964" lon="-1.4960452973378542"><ele>323.0</ele><time>2026-03-31T08:34:09.001Z</time></trkpt><trkpt lat="42.09031971600464" lon="-1.496329089490142"><ele>323.0</ele><time>2026-03-31T08:34:10.001Z</time></trkpt><trkpt lat="42.09035506362566" lon="-1.4966282533972581"><ele>326.0</ele><time>2026-03-31T08:34:11.001Z</time></trkpt><trkpt lat="42.09035832251171" lon="-1.4969375198639987"><ele>329.0</ele><time>2026-03-31T08:34:12.001Z</time></trkpt><trkpt lat="42.090329342217935" lon="-1.4972449753220485"><ele>329.5</ele><time>2026-03-31T08:34:13.001Z</time></trkpt><trkpt lat="42.09027123332111" lon="-1.4975450893140558"><ele>330.0</ele><time>2026-03-31T08:34:14.001Z</time></trkpt><trkpt lat="42.09018524353026" lon="-1.4978406536409758"><ele>327.5</ele><time>2026-03-31T08:34:15.001Z</time></trkpt><trkpt lat="42.0900851863006" lon="-1.4981270498484007"><ele>325.0</ele><time>2026-03-31T08:34:16.001Z</time></trkpt><trkpt lat="42.089980273665674" lon="-1.4984193936529842"><ele>327.5</ele><time>2026-03-31T08:34:17.001Z</time></trkpt><trkpt lat="42.089877120178535" lon="-1.4987034861100974"><ele>330.0</ele><time>2026-03-31T08:34:18.001Z</time></trkpt><trkpt lat="42.089776432640654" lon="-1.4989917589006294"><ele>330.0</ele><time>2026-03-31T08:34:19.001Z</time></trkpt><trkpt lat="42.089677441982644" lon="-1.4992755113511835"><ele>330.0</ele><time>2026-03-31T08:34:20.001Z</time></trkpt><trkpt lat="42.08957881250634" lon="-1.499558627974615"><ele>329.5</ele><time>2026-03-31T08:34:21.001Z</time></trkpt><trkpt lat="42.08948395326381" lon="-1.4998405166029751"><ele>329.0</ele><time>2026-03-31T08:34:22.001Z</time></trkpt><trkpt lat="42.08938171257808" lon="-1.5001255812141876"><ele>329.0</ele><time>2026-03-31T08:34:23.001Z</time></trkpt><trkpt lat="42.089275744733115" lon="-1.500407906341353"><ele>329.0</ele><time>2026-03-31T08:34:24.001Z</time></trkpt><trkpt lat="42.0891670768489" lon="-1.5007074177025304"><ele>330.5</ele><time>2026-03-31T08:34:25Z</time></trkpt><trkpt lat="42.08906441903411" lon="-1.5010096587397739"><ele>332.0</ele><time>2026-03-31T08:34:26Z</time></trkpt><trkpt lat="42.08896207375377" lon="-1.5013131062197618"><ele>332.0</ele><time>2026-03-31T08:34:27Z</time></trkpt><trkpt lat="42.08886176199529" lon="-1.5016128105519742"><ele>332.0</ele><time>2026-03-31T08:34:28.001Z</time></trkpt><trkpt lat="42.0887702466338" lon="-1.5019201139466465"><ele>331.0</ele><time>2026-03-31T08:34:29Z</time></trkpt><trkpt lat="42.08869545196903" lon="-1.5022313689125135"><ele>330.0</ele><time>2026-03-31T08:34:30Z</time></trkpt><trkpt lat="42.08863060195536" lon="-1.502550554922709"><ele>330.0</ele><time>2026-03-31T08:34:31Z</time></trkpt><trkpt lat="42.088573549570285" lon="-1.5028751027405698"><ele>330.0</ele><time>2026-03-31T08:34:32Z</time></trkpt><trkpt lat="42.08852351647731" lon="-1.503197690744558"><ele>328.5</ele><time>2026-03-31T08:34:33Z</time></trkpt><trkpt lat="42.0884745801179" lon="-1.5035189994991986"><ele>327.0</ele><time>2026-03-31T08:34:34Z</time></trkpt><trkpt lat="42.08842335938719" lon="-1.5038363065480946"><ele>326.0</ele><time>2026-03-31T08:34:35Z</time></trkpt><trkpt lat="42.08836976975767" lon="-1.5041685300487968"><ele>325.0</ele><time>2026-03-31T08:34:36Z</time></trkpt><trkpt lat="42.088319137539074" lon="-1.504497160795706"><ele>324.0</ele><time>2026-03-31T08:34:37Z</time></trkpt><trkpt lat="42.08826888872401" lon="-1.5048263564825954"><ele>323.0</ele><time>2026-03-31T08:34:38Z</time></trkpt><trkpt lat="42.0882144433373" lon="-1.505148450094127"><ele>325.5</ele><time>2026-03-31T08:34:39Z</time></trkpt><trkpt lat="42.088164231284324" lon="-1.5054700910834313"><ele>328.0</ele><time>2026-03-31T08:34:40Z</time></trkpt><trkpt lat="42.08811224661723" lon="-1.505795356488613"><ele>328.0</ele><time>2026-03-31T08:34:41Z</time></trkpt><trkpt lat="42.08806143898232" lon="-1.5061229649846037"><ele>328.0</ele><time>2026-03-31T08:34:42Z</time></trkpt><trkpt lat="42.08800929195203" lon="-1.5064529202933081"><ele>326.0</ele><time>2026-03-31T08:34:43Z</time></trkpt><trkpt lat="42.08795707847168" lon="-1.5067776309063698"><ele>324.0</ele><time>2026-03-31T08:34:44Z</time></trkpt><trkpt lat="42.08790798006859" lon="-1.5070964230865658"><ele>322.5</ele><time>2026-03-31T08:34:45Z</time></trkpt><trkpt lat="42.087859327072636" lon="-1.5074111248142688"><ele>321.0</ele><time>2026-03-31T08:34:46Z</time></trkpt><trkpt lat="42.08781144723862" lon="-1.507727248931543"><ele>319.0</ele><time>2026-03-31T08:34:47Z</time></trkpt><trkpt lat="42.08776535484627" lon="-1.5080407553387785"><ele>317.0</ele><time>2026-03-31T08:34:48Z</time></trkpt><trkpt lat="42.08772176677995" lon="-1.5083497670646147"><ele>317.0</ele><time>2026-03-31T08:34:49Z</time></trkpt><trkpt lat="42.087680905926554" lon="-1.5086648538106187"><ele>317.0</ele><time>2026-03-31T08:34:50Z</time></trkpt><trkpt lat="42.087638288084605" lon="-1.5089801221955745"><ele>316.0</ele><time>2026-03-31T08:34:51Z</time></trkpt><trkpt lat="42.08759853980815" lon="-1.5092953763929455"><ele>315.0</ele><time>2026-03-31T08:34:52Z</time></trkpt><trkpt lat="42.08756116488436" lon="-1.509605528180409"><ele>313.5</ele><time>2026-03-31T08:34:53Z</time></trkpt><trkpt lat="42.08752568375377" lon="-1.5099164538223642"><ele>312.0</ele><time>2026-03-31T08:34:54Z</time></trkpt><trkpt lat="42.08748797514607" lon="-1.5102224666007713"><ele>313.0</ele><time>2026-03-31T08:34:55Z</time></trkpt><trkpt lat="42.087448267744584" lon="-1.5105270119481424"><ele>314.0</ele><time>2026-03-31T08:34:56Z</time></trkpt><trkpt lat="42.087409929281826" lon="-1.5108291392940425"><ele>314.0</ele><time>2026-03-31T08:34:57Z</time></trkpt><trkpt lat="42.08737383170037" lon="-1.5111304685995244"><ele>314.0</ele><time>2026-03-31T08:34:58Z</time></trkpt><trkpt lat="42.08733648380777" lon="-1.5114311802053249"><ele>313.33333333333337</ele><time>2026-03-31T08:34:59Z</time></trkpt><trkpt lat="42.087299098169886" lon="-1.5117294030093407"><ele>312.6666666666667</ele><time>2026-03-31T08:35:00Z</time></trkpt><trkpt lat="42.08726073653562" lon="-1.512028035538721"><ele>312.0</ele><time>2026-03-31T08:35:01Z</time></trkpt><trkpt lat="42.08722267339067" lon="-1.5123321026643748"><ele>312.0</ele><time>2026-03-31T08:35:02Z</time></trkpt><trkpt lat="42.08718562072302" lon="-1.5126334631612244"><ele>312.0</ele><time>2026-03-31T08:35:03Z</time></trkpt><trkpt lat="42.08714570211096" lon="-1.5129368180389375"><ele>310.6666666666667</ele><time>2026-03-31T08:35:04Z</time></trkpt><trkpt lat="42.08710583783953" lon="-1.5132355216886064"><ele>309.33333333333337</ele><time>2026-03-31T08:35:05Z</time></trkpt><trkpt lat="42.0870704429781" lon="-1.5135322427449494"><ele>308.0</ele><time>2026-03-31T08:35:06Z</time></trkpt><trkpt lat="42.08703433944496" lon="-1.5138388930933873"><ele>307.5</ele><time>2026-03-31T08:35:07Z</time></trkpt><trkpt lat="42.08700310291558" lon="-1.5141428135915729"><ele>307.0</ele><time>2026-03-31T08:35:08Z</time></trkpt><trkpt lat="42.0869663112812" lon="-1.5144557643083956"><ele>306.0</ele><time>2026-03-31T08:35:09Z</time></trkpt><trkpt lat="42.08692645515926" lon="-1.5147694953855237"><ele>305.0</ele><time>2026-03-31T08:35:10Z</time></trkpt><trkpt lat="42.086882165802436" lon="-1.515084449923425"><ele>305.0</ele><time>2026-03-31T08:35:11Z</time></trkpt><trkpt lat="42.08684778004168" lon="-1.5153962481836138"><ele>305.0</ele><time>2026-03-31T08:35:12Z</time></trkpt><trkpt lat="42.0868424753382" lon="-1.5157045547128813"><ele>302.5</ele><time>2026-03-31T08:35:13Z</time></trkpt><trkpt lat="42.08685802718393" lon="-1.5160318644428037"><ele>300.0</ele><time>2026-03-31T08:35:14Z</time></trkpt><trkpt lat="42.08688029758247" lon="-1.516352928540763"><ele>300.0</ele><time>2026-03-31T08:35:15Z</time></trkpt><trkpt lat="42.08691394692439" lon="-1.5166713456094592"><ele>300.0</ele><time>2026-03-31T08:35:16Z</time></trkpt><trkpt lat="42.086969994070756" lon="-1.5169861614147133"><ele>300.0</ele><time>2026-03-31T08:35:17Z</time></trkpt><trkpt lat="42.087041803502764" lon="-1.5172867206316356"><ele>300.0</ele><time>2026-03-31T08:35:18Z</time></trkpt><trkpt lat="42.087108534521136" lon="-1.5175907510315239"><ele>300.0</ele><time>2026-03-31T08:35:19Z</time></trkpt><trkpt lat="42.087174378407" lon="-1.5178943707581758"><ele>300.0</ele><time>2026-03-31T08:35:20Z</time></trkpt><trkpt lat="42.08724021044108" lon="-1.5182022155230024"><ele>298.5</ele><time>2026-03-31T08:35:21Z</time></trkpt><trkpt lat="42.087299260787944" lon="-1.518504375542508"><ele>297.0</ele><time>2026-03-31T08:35:22Z</time></trkpt><trkpt lat="42.08735577277737" lon="-1.518803234044687"><ele>296.5</ele><time>2026-03-31T08:35:23Z</time></trkpt><trkpt lat="42.08739792082617" lon="-1.5191025821230915"><ele>296.0</ele><time>2026-03-31T08:35:24Z</time></trkpt><trkpt lat="42.08741681799546" lon="-1.5194155835549148"><ele>296.5</ele><time>2026-03-31T08:35:25Z</time></trkpt><trkpt lat="42.08741797909471" lon="-1.519729347270429"><ele>297.0</ele><time>2026-03-31T08:35:26Z</time></trkpt><trkpt lat="42.08741407765637" lon="-1.52004705814909"><ele>297.0</ele><time>2026-03-31T08:35:27Z</time></trkpt><trkpt lat="42.087405920084045" lon="-1.5203642026730568"><ele>297.0</ele><time>2026-03-31T08:35:28Z</time></trkpt><trkpt lat="42.08739062879373" lon="-1.520678031377311"><ele>297.0</ele><time>2026-03-31T08:35:29Z</time></trkpt><trkpt lat="42.08737420857802" lon="-1.520997719680128"><ele>297.0</ele><time>2026-03-31T08:35:30Z</time></trkpt><trkpt lat="42.087361409426464" lon="-1.52131281410416"><ele>297.0</ele><time>2026-03-31T08:35:31Z</time></trkpt><trkpt lat="42.08734867271524" lon="-1.5216267524404632"><ele>297.0</ele><time>2026-03-31T08:35:32Z</time></trkpt><trkpt lat="42.087337923950045" lon="-1.5219451995967404"><ele>296.5</ele><time>2026-03-31T08:35:33Z</time></trkpt><trkpt lat="42.08732481195905" lon="-1.5222702558149082"><ele>296.0</ele><time>2026-03-31T08:35:34Z</time></trkpt><trkpt lat="42.087311166966124" lon="-1.5225878087515936"><ele>296.0</ele><time>2026-03-31T08:35:35Z</time></trkpt><trkpt lat="42.08729614244861" lon="-1.5229206573489318"><ele>296.0</ele><time>2026-03-31T08:35:36Z</time></trkpt><trkpt lat="42.08727925907766" lon="-1.5232627988903056"><ele>296.0</ele><time>2026-03-31T08:35:37Z</time></trkpt><trkpt lat="42.087266852907284" lon="-1.5236042200251625"><ele>296.0</ele><time>2026-03-31T08:35:38Z</time></trkpt><trkpt lat="42.08725622833315" lon="-1.5239322739368957"><ele>295.5</ele><time>2026-03-31T08:35:39Z</time></trkpt><trkpt lat="42.087234761357614" lon="-1.5242641764631868"><ele>295.0</ele><time>2026-03-31T08:35:40Z</time></trkpt><trkpt lat="42.0872132202217" lon="-1.524597126334206"><ele>295.0</ele><time>2026-03-31T08:35:41Z</time></trkpt><trkpt lat="42.08720691469757" lon="-1.52492321220877"><ele>295.0</ele><time>2026-03-31T08:35:42Z</time></trkpt><trkpt lat="42.08719896733187" lon="-1.525246331356986"><ele>295.0</ele><time>2026-03-31T08:35:43Z</time></trkpt><trkpt lat="42.087176823184926" lon="-1.5255619967617222"><ele>295.0</ele><time>2026-03-31T08:35:44Z</time></trkpt><trkpt lat="42.08715567950567" lon="-1.525875220641658"><ele>295.0</ele><time>2026-03-31T08:35:45Z</time></trkpt><trkpt lat="42.087151943153955" lon="-1.5261851895104832"><ele>295.0</ele><time>2026-03-31T08:35:46Z</time></trkpt><trkpt lat="42.087171907441494" lon="-1.5264964678414663"><ele>293.5</ele><time>2026-03-31T08:35:47Z</time></trkpt><trkpt lat="42.08719730292578" lon="-1.5268136434281006"><ele>292.0</ele><time>2026-03-31T08:35:48Z</time></trkpt><trkpt lat="42.087212503945956" lon="-1.527123623709066"><ele>292.0</ele><time>2026-03-31T08:35:49Z</time></trkpt><trkpt lat="42.08723212550666" lon="-1.5274274716540053"><ele>292.0</ele><time>2026-03-31T08:35:50Z</time></trkpt><trkpt lat="42.087250176305986" lon="-1.5277323355126393"><ele>291.66666666666663</ele><time>2026-03-31T08:35:51Z</time></trkpt><trkpt lat="42.08726644603006" lon="-1.5280345407808114"><ele>291.3333333333333</ele><time>2026-03-31T08:35:52Z</time></trkpt><trkpt lat="42.087281196561136" lon="-1.5283335939724172"><ele>291.0</ele><time>2026-03-31T08:35:53Z</time></trkpt><trkpt lat="42.08726348354885" lon="-1.5286303692707701"><ele>292.0</ele><time>2026-03-31T08:35:54Z</time></trkpt><trkpt lat="42.08721386531062" lon="-1.5289185200861344"><ele>293.0</ele><time>2026-03-31T08:35:55Z</time></trkpt><trkpt lat="42.08716786838516" lon="-1.5292444705572286"><ele>293.0</ele><time>2026-03-31T08:35:56Z</time></trkpt><trkpt lat="42.08713237920532" lon="-1.5295424398927868"><ele>293.0</ele><time>2026-03-31T08:35:57Z</time></trkpt><trkpt lat="42.08709858566113" lon="-1.5298461684429352"><ele>293.0</ele><time>2026-03-31T08:35:58Z</time></trkpt><trkpt lat="42.087073493475565" lon="-1.5301508343240988"><ele>293.0</ele><time>2026-03-31T08:35:59Z</time></trkpt><trkpt lat="42.087070554634934" lon="-1.5304641740102067"><ele>293.0</ele><time>2026-03-31T08:36:00Z</time></trkpt><trkpt lat="42.08709572261499" lon="-1.5307619916831237"><ele>293.0</ele><time>2026-03-31T08:36:01Z</time></trkpt><trkpt lat="42.08711716596976" lon="-1.5310585963035703"><ele>293.0</ele><time>2026-03-31T08:36:02Z</time></trkpt><trkpt lat="42.08714592146737" lon="-1.5313593732419877"><ele>292.33333333333337</ele><time>2026-03-31T08:36:03Z</time></trkpt><trkpt lat="42.08717935895465" lon="-1.5316668304014736"><ele>291.6666666666667</ele><time>2026-03-31T08:36:04Z</time></trkpt><trkpt lat="42.08721825750454" lon="-1.5319508846352279"><ele>291.0</ele><time>2026-03-31T08:36:05Z</time></trkpt><trkpt lat="42.087246812039716" lon="-1.5322563107298228"><ele>290.5</ele><time>2026-03-31T08:36:06Z</time></trkpt><trkpt lat="42.087282875169905" lon="-1.5325529097712502"><ele>290.0</ele><time>2026-03-31T08:36:07Z</time></trkpt><trkpt lat="42.08733540171885" lon="-1.5328534551512285"><ele>290.5</ele><time>2026-03-31T08:36:08Z</time></trkpt><trkpt lat="42.08740696844559" lon="-1.5331443213239206"><ele>291.0</ele><time>2026-03-31T08:36:09Z</time></trkpt><trkpt lat="42.08749728948771" lon="-1.5334278496004483"><ele>292.5</ele><time>2026-03-31T08:36:10Z</time></trkpt><trkpt lat="42.08759084473564" lon="-1.533711333476732"><ele>294.0</ele><time>2026-03-31T08:36:11Z</time></trkpt><trkpt lat="42.08769075950518" lon="-1.5339794438912784"><ele>294.0</ele><time>2026-03-31T08:36:12Z</time></trkpt><trkpt lat="42.08779126542942" lon="-1.5342528431526443"><ele>294.0</ele><time>2026-03-31T08:36:13Z</time></trkpt><trkpt lat="42.08788555516436" lon="-1.5345204305475992"><ele>294.0</ele><time>2026-03-31T08:36:14Z</time></trkpt><trkpt lat="42.08798301194799" lon="-1.5347843643177985"><ele>293.0</ele><time>2026-03-31T08:36:15Z</time></trkpt><trkpt lat="42.0880833162017" lon="-1.5350452498200238"><ele>292.0</ele><time>2026-03-31T08:36:16Z</time></trkpt><trkpt lat="42.08817526873433" lon="-1.535307612296071"><ele>291.0</ele><time>2026-03-31T08:36:17Z</time></trkpt><trkpt lat="42.08828370270697" lon="-1.5355642873745396"><ele>294.0</ele><time>2026-03-31T08:36:18Z</time></trkpt><trkpt lat="42.0884283179198" lon="-1.5358012853569678"><ele>297.0</ele><time>2026-03-31T08:36:19Z</time></trkpt><trkpt lat="42.08860608961349" lon="-1.5359935844857473"><ele>297.0</ele><time>2026-03-31T08:36:20Z</time></trkpt><trkpt lat="42.088767818949336" lon="-1.536200741247175"><ele>297.0</ele><time>2026-03-31T08:36:21Z</time></trkpt><trkpt lat="42.088940781922346" lon="-1.536377969997983"><ele>297.0</ele><time>2026-03-31T08:36:22Z</time></trkpt><trkpt lat="42.089095439545815" lon="-1.536579616277465"><ele>297.3333333333333</ele><time>2026-03-31T08:36:23Z</time></trkpt><trkpt lat="42.08922705258065" lon="-1.5368143258616442"><ele>297.66666666666663</ele><time>2026-03-31T08:36:24Z</time></trkpt><trkpt lat="42.089329369683696" lon="-1.5370724657590793"><ele>298.0</ele><time>2026-03-31T08:36:25Z</time></trkpt><trkpt lat="42.089406281869465" lon="-1.5373466805342382"><ele>298.3333333333333</ele><time>2026-03-31T08:36:26Z</time></trkpt><trkpt lat="42.08945393269928" lon="-1.5376349302459233"><ele>298.6666666666667</ele><time>2026-03-31T08:36:27Z</time></trkpt><trkpt lat="42.0894725831872" lon="-1.537930152117093"><ele>299.0</ele><time>2026-03-31T08:36:28Z</time></trkpt><trkpt lat="42.0894582980859" lon="-1.5382383543975768"><ele>299.0</ele><time>2026-03-31T08:36:29Z</time></trkpt><trkpt lat="42.08942502364551" lon="-1.5385475690261137"><ele>299.0</ele><time>2026-03-31T08:36:30Z</time></trkpt><trkpt lat="42.089363624296524" lon="-1.5388536613422235"><ele>297.0</ele><time>2026-03-31T08:36:31Z</time></trkpt><trkpt lat="42.08927272765438" lon="-1.5391530792156938"><ele>295.0</ele><time>2026-03-31T08:36:32Z</time></trkpt><trkpt lat="42.08917679064364" lon="-1.5394452637416802"><ele>293.5</ele><time>2026-03-31T08:36:33Z</time></trkpt><trkpt lat="42.08907787006898" lon="-1.5397392808429062"><ele>292.0</ele><time>2026-03-31T08:36:34Z</time></trkpt><trkpt lat="42.08899926110323" lon="-1.5400280969505804"><ele>292.0</ele><time>2026-03-31T08:36:35Z</time></trkpt><trkpt lat="42.08892893318402" lon="-1.540312025110107"><ele>292.0</ele><time>2026-03-31T08:36:36Z</time></trkpt><trkpt lat="42.08885916471245" lon="-1.5405986585794715"><ele>292.0</ele><time>2026-03-31T08:36:37Z</time></trkpt><trkpt lat="42.088776999181775" lon="-1.5408896071097273"><ele>294.0</ele><time>2026-03-31T08:36:38Z</time></trkpt><trkpt lat="42.08868917156798" lon="-1.5411926871941743"><ele>296.0</ele><time>2026-03-31T08:36:39Z</time></trkpt><trkpt lat="42.08861015523367" lon="-1.5414931034057775"><ele>297.0</ele><time>2026-03-31T08:36:40Z</time></trkpt><trkpt lat="42.08852916150254" lon="-1.5417887235654804"><ele>298.0</ele><time>2026-03-31T08:36:41Z</time></trkpt><trkpt lat="42.08844810138677" lon="-1.5420823741740262"><ele>298.5</ele><time>2026-03-31T08:36:42Z</time></trkpt><trkpt lat="42.08836203600001" lon="-1.5423684385968888"><ele>299.0</ele><time>2026-03-31T08:36:43Z</time></trkpt><trkpt lat="42.088280342158846" lon="-1.5426702460326727"><ele>295.0</ele><time>2026-03-31T08:36:44Z</time></trkpt><trkpt lat="42.08820235335878" lon="-1.5429674279567107"><ele>291.0</ele><time>2026-03-31T08:36:45Z</time></trkpt><trkpt lat="42.08810998897392" lon="-1.5432589151072036"><ele>291.0</ele><time>2026-03-31T08:36:46Z</time></trkpt><trkpt lat="42.088018758294226" lon="-1.5435514803264547"><ele>291.0</ele><time>2026-03-31T08:36:47Z</time></trkpt><trkpt lat="42.087920174783484" lon="-1.5438365846857793"><ele>293.0</ele><time>2026-03-31T08:36:48Z</time></trkpt><trkpt lat="42.08777616623864" lon="-1.544095581055018"><ele>295.0</ele><time>2026-03-31T08:36:49Z</time></trkpt><trkpt lat="42.08761009262348" lon="-1.5443374848858087"><ele>296.5</ele><time>2026-03-31T08:36:50Z</time></trkpt><trkpt lat="42.08745163107848" lon="-1.544595898307207"><ele>298.0</ele><time>2026-03-31T08:36:51Z</time></trkpt><trkpt lat="42.087296754623786" lon="-1.5448561897717434"><ele>293.5</ele><time>2026-03-31T08:36:52Z</time></trkpt><trkpt lat="42.08713756214355" lon="-1.5451125833000003"><ele>289.0</ele><time>2026-03-31T08:36:53Z</time></trkpt><trkpt lat="42.086979953525216" lon="-1.5453721907546376"><ele>290.5</ele><time>2026-03-31T08:36:54Z</time></trkpt><trkpt lat="42.08683361725019" lon="-1.545630916586463"><ele>292.0</ele><time>2026-03-31T08:36:55Z</time></trkpt><trkpt lat="42.086680098884145" lon="-1.5458782478740825"><ele>289.5</ele><time>2026-03-31T08:36:56Z</time></trkpt><trkpt lat="42.086527677400206" lon="-1.5461247000294829"><ele>287.0</ele><time>2026-03-31T08:36:57Z</time></trkpt><trkpt lat="42.08637161210009" lon="-1.5463698428077763"><ele>287.0</ele><time>2026-03-31T08:36:58Z</time></trkpt><trkpt lat="42.08620227176282" lon="-1.5466001246367191"><ele>287.0</ele><time>2026-03-31T08:36:59Z</time></trkpt><trkpt lat="42.086016372936065" lon="-1.5468120544343713"><ele>287.0</ele><time>2026-03-31T08:37:00Z</time></trkpt><trkpt lat="42.08582908376553" lon="-1.54701860493758"><ele>287.0</ele><time>2026-03-31T08:37:01Z</time></trkpt><trkpt lat="42.08564758887657" lon="-1.5472419595362308"><ele>287.5</ele><time>2026-03-31T08:37:02Z</time></trkpt><trkpt lat="42.08547922224574" lon="-1.547473425494351"><ele>288.0</ele><time>2026-03-31T08:37:03Z</time></trkpt><trkpt lat="42.08533810086926" lon="-1.5477307779965743"><ele>291.0</ele><time>2026-03-31T08:37:04Z</time></trkpt><trkpt lat="42.085231786356545" lon="-1.548010199168829"><ele>294.0</ele><time>2026-03-31T08:37:05Z</time></trkpt><trkpt lat="42.08516136027677" lon="-1.5483053124764148"><ele>294.0</ele><time>2026-03-31T08:37:06Z</time></trkpt><trkpt lat="42.08511901422564" lon="-1.5486122360078405"><ele>294.0</ele><time>2026-03-31T08:37:07Z</time></trkpt><trkpt lat="42.08510399948941" lon="-1.5489268124603621"><ele>295.0</ele><time>2026-03-31T08:37:08Z</time></trkpt><trkpt lat="42.0851156069136" lon="-1.5492396510822228"><ele>296.0</ele><time>2026-03-31T08:37:09Z</time></trkpt><trkpt lat="42.085152857150234" lon="-1.54954005289129"><ele>296.6666666666667</ele><time>2026-03-31T08:37:10Z</time></trkpt><trkpt lat="42.08520871376277" lon="-1.5498268909982162"><ele>297.3333333333333</ele><time>2026-03-31T08:37:11Z</time></trkpt><trkpt lat="42.08526284840416" lon="-1.550116750392477"><ele>298.0</ele><time>2026-03-31T08:37:12Z</time></trkpt><trkpt lat="42.085300436115624" lon="-1.5504093563705261"><ele>298.0</ele><time>2026-03-31T08:37:13Z</time></trkpt><trkpt lat="42.085329804100674" lon="-1.5507056528637886"><ele>298.0</ele><time>2026-03-31T08:37:14Z</time></trkpt><trkpt lat="42.08535020522042" lon="-1.5510008834793327"><ele>298.0</ele><time>2026-03-31T08:37:15Z</time></trkpt><trkpt lat="42.08535573386424" lon="-1.551301308341309"><ele>298.0</ele><time>2026-03-31T08:37:16Z</time></trkpt><trkpt lat="42.085357988967104" lon="-1.5516075688315243"><ele>298.0</ele><time>2026-03-31T08:37:17Z</time></trkpt><trkpt lat="42.08536283858173" lon="-1.55191384314882"><ele>297.5</ele><time>2026-03-31T08:37:18Z</time></trkpt><trkpt lat="42.08536569353129" lon="-1.5522199695746202"><ele>297.0</ele><time>2026-03-31T08:37:19Z</time></trkpt><trkpt lat="42.085366247760874" lon="-1.552528170824447"><ele>297.0</ele><time>2026-03-31T08:37:20Z</time></trkpt><trkpt lat="42.08537005063593" lon="-1.5528313926668211"><ele>297.0</ele><time>2026-03-31T08:37:21Z</time></trkpt><trkpt lat="42.08537507609921" lon="-1.5531386929287785"><ele>296.5</ele><time>2026-03-31T08:37:22Z</time></trkpt><trkpt lat="42.0853777690524" lon="-1.5534465952575907"><ele>296.0</ele><time>2026-03-31T08:37:23Z</time></trkpt><trkpt lat="42.08537857566346" lon="-1.553753164211211"><ele>296.0</ele><time>2026-03-31T08:37:24Z</time></trkpt><trkpt lat="42.08538036919394" lon="-1.554056944936199"><ele>296.0</ele><time>2026-03-31T08:37:25Z</time></trkpt><trkpt lat="42.085383535215044" lon="-1.554350522900625"><ele>296.0</ele><time>2026-03-31T08:37:26Z</time></trkpt><trkpt lat="42.085389653069804" lon="-1.5546433862855675"><ele>295.6666666666667</ele><time>2026-03-31T08:37:27Z</time></trkpt><trkpt lat="42.085392199994935" lon="-1.554935199137957"><ele>295.3333333333333</ele><time>2026-03-31T08:37:28Z</time></trkpt><trkpt lat="42.08539168598106" lon="-1.5552292525923075"><ele>295.0</ele><time>2026-03-31T08:37:29Z</time></trkpt><trkpt lat="42.08539540820769" lon="-1.555524856860057"><ele>294.66666666666663</ele><time>2026-03-31T08:37:30Z</time></trkpt><trkpt lat="42.08540035808977" lon="-1.5558184425215982"><ele>294.3333333333333</ele><time>2026-03-31T08:37:31Z</time></trkpt><trkpt lat="42.08540317913632" lon="-1.556114815167776"><ele>294.0</ele><time>2026-03-31T08:37:32Z</time></trkpt><trkpt lat="42.085401901425335" lon="-1.5564061106295566"><ele>294.0</ele><time>2026-03-31T08:37:33Z</time></trkpt><trkpt lat="42.08540556391469" lon="-1.5566984988351502"><ele>294.0</ele><time>2026-03-31T08:37:34Z</time></trkpt><trkpt lat="42.08541864847633" lon="-1.5569905950570093"><ele>294.0</ele><time>2026-03-31T08:37:35Z</time></trkpt><trkpt lat="42.085415742771765" lon="-1.5572998741734578"><ele>294.0</ele><time>2026-03-31T08:37:36Z</time></trkpt><trkpt lat="42.08540276715335" lon="-1.557622218016179"><ele>294.0</ele><time>2026-03-31T08:37:37Z</time></trkpt><trkpt lat="42.08538267000691" lon="-1.5579403340012865"><ele>294.5</ele><time>2026-03-31T08:37:38Z</time></trkpt><trkpt lat="42.08534864931219" lon="-1.558250723065262"><ele>295.0</ele><time>2026-03-31T08:37:39Z</time></trkpt><trkpt lat="42.08528608572489" lon="-1.5585571491829469"><ele>295.5</ele><time>2026-03-31T08:37:40Z</time></trkpt><trkpt lat="42.08520517407234" lon="-1.5588507718393834"><ele>296.0</ele><time>2026-03-31T08:37:41Z</time></trkpt><trkpt lat="42.08513439354903" lon="-1.5591496626317465"><ele>296.0</ele><time>2026-03-31T08:37:42Z</time></trkpt><trkpt lat="42.08507187814111" lon="-1.5594578021199825"><ele>296.0</ele><time>2026-03-31T08:37:43Z</time></trkpt><trkpt lat="42.08500112639931" lon="-1.5597753991685404"><ele>295.0</ele><time>2026-03-31T08:37:44Z</time></trkpt><trkpt lat="42.08492718907026" lon="-1.5600923977634784"><ele>294.0</ele><time>2026-03-31T08:37:45Z</time></trkpt><trkpt lat="42.08485823371531" lon="-1.560418948835587"><ele>292.5</ele><time>2026-03-31T08:37:46Z</time></trkpt><trkpt lat="42.08479086191696" lon="-1.560757928436838"><ele>291.0</ele><time>2026-03-31T08:37:47Z</time></trkpt><trkpt lat="42.08471960684665" lon="-1.561093496642899"><ele>290.0</ele><time>2026-03-31T08:37:48Z</time></trkpt><trkpt lat="42.08464513891088" lon="-1.5614192825430766"><ele>289.0</ele><time>2026-03-31T08:37:49Z</time></trkpt><trkpt lat="42.08457092453121" lon="-1.5617431837936921"><ele>288.0</ele><time>2026-03-31T08:37:50Z</time></trkpt><trkpt lat="42.08450201164493" lon="-1.5620731635206728"><ele>287.0</ele><time>2026-03-31T08:37:51Z</time></trkpt><trkpt lat="42.084434761318256" lon="-1.562393139173185"><ele>287.0</ele><time>2026-03-31T08:37:52Z</time></trkpt><trkpt lat="42.08435980108068" lon="-1.5627219792390783"><ele>287.0</ele><time>2026-03-31T08:37:53Z</time></trkpt><trkpt lat="42.084288515732055" lon="-1.5630481573325834"><ele>287.5</ele><time>2026-03-31T08:37:54Z</time></trkpt><trkpt lat="42.08421952612538" lon="-1.5633841380289426"><ele>288.0</ele><time>2026-03-31T08:37:55Z</time></trkpt><trkpt lat="42.084150681136435" lon="-1.5637129650262866"><ele>288.0</ele><time>2026-03-31T08:37:56Z</time></trkpt><trkpt lat="42.084078097504836" lon="-1.5640478543515346"><ele>288.0</ele><time>2026-03-31T08:37:57Z</time></trkpt><trkpt lat="42.08400940828867" lon="-1.5643839002472666"><ele>287.5</ele><time>2026-03-31T08:37:58Z</time></trkpt><trkpt lat="42.08395596329631" lon="-1.5647207853182588"><ele>287.0</ele><time>2026-03-31T08:37:59Z</time></trkpt><trkpt lat="42.08390943619982" lon="-1.5650649524389253"><ele>286.0</ele><time>2026-03-31T08:38:00Z</time></trkpt><trkpt lat="42.08385385604819" lon="-1.5654013874885313"><ele>285.0</ele><time>2026-03-31T08:38:01Z</time></trkpt><trkpt lat="42.08379023539529" lon="-1.5657327951365654"><ele>285.0</ele><time>2026-03-31T08:38:02Z</time></trkpt><trkpt lat="42.08373421040045" lon="-1.5660661317962479"><ele>285.0</ele><time>2026-03-31T08:38:03Z</time></trkpt><trkpt lat="42.083680871020704" lon="-1.5663966878578484"><ele>285.0</ele><time>2026-03-31T08:38:04Z</time></trkpt><trkpt lat="42.08362304196088" lon="-1.5667282600274675"><ele>285.0</ele><time>2026-03-31T08:38:05Z</time></trkpt><trkpt lat="42.08356739156241" lon="-1.5670600914634194"><ele>284.5</ele><time>2026-03-31T08:38:06Z</time></trkpt><trkpt lat="42.083515699430336" lon="-1.5673913954617742"><ele>284.0</ele><time>2026-03-31T08:38:07Z</time></trkpt><trkpt lat="42.083462901787534" lon="-1.5677179226974025"><ele>283.0</ele><time>2026-03-31T08:38:08Z</time></trkpt><trkpt lat="42.08340791852367" lon="-1.5680416989638382"><ele>282.0</ele><time>2026-03-31T08:38:09Z</time></trkpt><trkpt lat="42.08335053380911" lon="-1.568361479303525"><ele>282.0</ele><time>2026-03-31T08:38:10Z</time></trkpt><trkpt lat="42.08330255817822" lon="-1.5686804679465312"><ele>282.0</ele><time>2026-03-31T08:38:11Z</time></trkpt><trkpt lat="42.08326223643668" lon="-1.5690011262824932"><ele>281.5</ele><time>2026-03-31T08:38:12Z</time></trkpt><trkpt lat="42.08322155509217" lon="-1.5693242831181407"><ele>281.0</ele><time>2026-03-31T08:38:13Z</time></trkpt><trkpt lat="42.08319009727836" lon="-1.569648498690265"><ele>281.0</ele><time>2026-03-31T08:38:14Z</time></trkpt><trkpt lat="42.08315704945445" lon="-1.569971679941473"><ele>281.0</ele><time>2026-03-31T08:38:15Z</time></trkpt><trkpt lat="42.08311869982668" lon="-1.5702906500409535"><ele>281.0</ele><time>2026-03-31T08:38:16Z</time></trkpt><trkpt lat="42.08309645881044" lon="-1.570610030800746"><ele>281.0</ele><time>2026-03-31T08:38:17Z</time></trkpt><trkpt lat="42.0830773632087" lon="-1.5709376478503125"><ele>280.0</ele><time>2026-03-31T08:38:18Z</time></trkpt><trkpt lat="42.08304316510584" lon="-1.5712749294940562"><ele>279.0</ele><time>2026-03-31T08:38:19Z</time></trkpt><trkpt lat="42.08300031084577" lon="-1.5716029992993998"><ele>279.0</ele><time>2026-03-31T08:38:20Z</time></trkpt><trkpt lat="42.082973523349025" lon="-1.5719266489666013"><ele>279.0</ele><time>2026-03-31T08:38:21Z</time></trkpt><trkpt lat="42.08295684513259" lon="-1.5722614606195513"><ele>278.0</ele><time>2026-03-31T08:38:22Z</time></trkpt><trkpt lat="42.082927768891444" lon="-1.5725946617809055"><ele>277.0</ele><time>2026-03-31T08:38:23Z</time></trkpt><trkpt lat="42.082889974520064" lon="-1.5729222098938482"><ele>275.5</ele><time>2026-03-31T08:38:24Z</time></trkpt><trkpt lat="42.082850811851266" lon="-1.5732351480991922"><ele>274.0</ele><time>2026-03-31T08:38:25Z</time></trkpt><trkpt lat="42.082808222139484" lon="-1.5735177310577395"><ele>273.0</ele><time>2026-03-31T08:38:26Z</time></trkpt><trkpt lat="42.08276178902563" lon="-1.5737529428615908"><ele>272.0</ele><time>2026-03-31T08:38:27Z</time></trkpt><trkpt lat="42.082715083665654" lon="-1.573977421380236"><ele>271.0</ele><time>2026-03-31T08:38:28Z</time></trkpt><trkpt lat="42.08266262843663" lon="-1.574191043549026"><ele>271.0</ele><time>2026-03-31T08:38:29Z</time></trkpt><trkpt lat="42.08261166258876" lon="-1.5743889456584306"><ele>271.0</ele><time>2026-03-31T08:38:30Z</time></trkpt><trkpt lat="42.082563237097276" lon="-1.5745975189034378"><ele>271.0</ele><time>2026-03-31T08:38:31Z</time></trkpt><trkpt lat="42.082511661580234" lon="-1.5748223367235605"><ele>270.0</ele><time>2026-03-31T08:38:32Z</time></trkpt><trkpt lat="42.0824556563632" lon="-1.5750660918526334"><ele>269.0</ele><time>2026-03-31T08:38:33Z</time></trkpt><trkpt lat="42.08239372368248" lon="-1.5753175875691106"><ele>268.0</ele><time>2026-03-31T08:38:34Z</time></trkpt><trkpt lat="42.082336845690676" lon="-1.5755790442610613"><ele>267.66666666666663</ele><time>2026-03-31T08:38:35Z</time></trkpt><trkpt lat="42.08228173136044" lon="-1.5758449772464143"><ele>267.3333333333333</ele><time>2026-03-31T08:38:36Z</time></trkpt><trkpt lat="42.082217736532776" lon="-1.5761280644405966"><ele>267.0</ele><time>2026-03-31T08:38:37Z</time></trkpt><trkpt lat="42.08214595848553" lon="-1.5764228164803824"><ele>266.5</ele><time>2026-03-31T08:38:38Z</time></trkpt><trkpt lat="42.082071707049195" lon="-1.576723298279183"><ele>266.0</ele><time>2026-03-31T08:38:39Z</time></trkpt><trkpt lat="42.08199773410252" lon="-1.577031254339601"><ele>266.0</ele><time>2026-03-31T08:38:40Z</time></trkpt><trkpt lat="42.081929021469946" lon="-1.5773350541335471"><ele>266.0</ele><time>2026-03-31T08:38:41Z</time></trkpt><trkpt lat="42.081869819245085" lon="-1.577632147046073"><ele>265.5</ele><time>2026-03-31T08:38:42Z</time></trkpt><trkpt lat="42.081798753239624" lon="-1.5779230031813636"><ele>265.0</ele><time>2026-03-31T08:38:43Z</time></trkpt><trkpt lat="42.081724893933085" lon="-1.5782105251703753"><ele>265.0</ele><time>2026-03-31T08:38:44Z</time></trkpt><trkpt lat="42.08166200848296" lon="-1.5785098297209568"><ele>265.0</ele><time>2026-03-31T08:38:45Z</time></trkpt><trkpt lat="42.08159237477859" lon="-1.5788103527567776"><ele>265.0</ele><time>2026-03-31T08:38:46Z</time></trkpt><trkpt lat="42.08151948717688" lon="-1.5791107258495496"><ele>265.0</ele><time>2026-03-31T08:38:47Z</time></trkpt><trkpt lat="42.08145015953209" lon="-1.5794081591007854"><ele>264.5</ele><time>2026-03-31T08:38:48Z</time></trkpt><trkpt lat="42.08138008368785" lon="-1.5797070687267314"><ele>264.0</ele><time>2026-03-31T08:38:49Z</time></trkpt><trkpt lat="42.081310404711765" lon="-1.5800086837728984"><ele>264.0</ele><time>2026-03-31T08:38:50Z</time></trkpt><trkpt lat="42.08124359310877" lon="-1.5803122748769094"><ele>264.0</ele><time>2026-03-31T08:38:51Z</time></trkpt><trkpt lat="42.08117641572518" lon="-1.5806111896981632"><ele>264.5</ele><time>2026-03-31T08:38:52Z</time></trkpt><trkpt lat="42.08110082807208" lon="-1.5809009240824574"><ele>265.0</ele><time>2026-03-31T08:38:53Z</time></trkpt><trkpt lat="42.08103712581114" lon="-1.5811927314484115"><ele>265.0</ele><time>2026-03-31T08:38:54Z</time></trkpt><trkpt lat="42.08097924339357" lon="-1.5814873722185412"><ele>265.0</ele><time>2026-03-31T08:38:55Z</time></trkpt><trkpt lat="42.08090646969337" lon="-1.5817820980474393"><ele>265.0</ele><time>2026-03-31T08:38:56Z</time></trkpt><trkpt lat="42.080831364603725" lon="-1.5820852153378646"><ele>265.0</ele><time>2026-03-31T08:38:57Z</time></trkpt><trkpt lat="42.08076282102009" lon="-1.5823870269681155"><ele>264.0</ele><time>2026-03-31T08:38:58Z</time></trkpt><trkpt lat="42.080696601921865" lon="-1.5826828115588634"><ele>263.0</ele><time>2026-03-31T08:38:59Z</time></trkpt><trkpt lat="42.08063734705494" lon="-1.5829634602412606"><ele>262.0</ele><time>2026-03-31T08:39:00Z</time></trkpt><trkpt lat="42.08056690181074" lon="-1.5832612261512087"><ele>261.0</ele><time>2026-03-31T08:39:01Z</time></trkpt><trkpt lat="42.08050010593806" lon="-1.5835376599484712"><ele>260.0</ele><time>2026-03-31T08:39:02Z</time></trkpt><trkpt lat="42.08043572021588" lon="-1.5837957923820922"><ele>259.0</ele><time>2026-03-31T08:39:03Z</time></trkpt><trkpt lat="42.08038299452065" lon="-1.584050971519737"><ele>258.0</ele><time>2026-03-31T08:39:04Z</time></trkpt><trkpt lat="42.080335061161044" lon="-1.5842871034982031"><ele>257.0</ele><time>2026-03-31T08:39:05Z</time></trkpt><trkpt lat="42.08028091967861" lon="-1.5845137188155094"><ele>256.0</ele><time>2026-03-31T08:39:06Z</time></trkpt><trkpt lat="42.080248621691155" lon="-1.5847123364719313"><ele>255.5</ele><time>2026-03-31T08:39:07Z</time></trkpt><trkpt lat="42.08024377635967" lon="-1.5848943151402526"><ele>255.0</ele><time>2026-03-31T08:39:08Z</time></trkpt><trkpt lat="42.08025945480231" lon="-1.5850820907094822"><ele>254.5</ele><time>2026-03-31T08:39:09Z</time></trkpt><trkpt lat="42.08026804253552" lon="-1.5852600037873033"><ele>254.0</ele><time>2026-03-31T08:39:10Z</time></trkpt><trkpt lat="42.08022611360803" lon="-1.5854076576274392"><ele>253.79999999999998</ele><time>2026-03-31T08:39:11Z</time></trkpt><trkpt lat="42.080145886229815" lon="-1.5854964086075523"><ele>253.59999999999997</ele><time>2026-03-31T08:39:12Z</time></trkpt><trkpt lat="42.08004483200587" lon="-1.5855377661215415"><ele>253.4</ele><time>2026-03-31T08:39:13Z</time></trkpt><trkpt lat="42.07993143894261" lon="-1.585515916213813"><ele>253.2</ele><time>2026-03-31T08:39:14Z</time></trkpt><trkpt lat="42.07982842630162" lon="-1.5854344024831213"><ele>253.0</ele><time>2026-03-31T08:39:15Z</time></trkpt><trkpt lat="42.079707017140755" lon="-1.5853246368715221"><ele>253.0</ele><time>2026-03-31T08:39:16Z</time></trkpt><trkpt lat="42.07957561263939" lon="-1.585278589595703"><ele>253.0</ele><time>2026-03-31T08:39:17Z</time></trkpt><trkpt lat="42.079419700698296" lon="-1.5852499707129122"><ele>253.0</ele><time>2026-03-31T08:39:18Z</time></trkpt><trkpt lat="42.079229252463335" lon="-1.5852287640563598"><ele>252.66666666666666</ele><time>2026-03-31T08:39:19Z</time></trkpt><trkpt lat="42.07905171264037" lon="-1.5852180127685713"><ele>252.33333333333331</ele><time>2026-03-31T08:39:20Z</time></trkpt><trkpt lat="42.07888086438555" lon="-1.5852298130055724"><ele>252.0</ele><time>2026-03-31T08:39:21Z</time></trkpt><trkpt lat="42.07871128908243" lon="-1.5852553384676813"><ele>252.0</ele><time>2026-03-31T08:39:22Z</time></trkpt><trkpt lat="42.07853511601201" lon="-1.5852897032211304"><ele>252.0</ele><time>2026-03-31T08:39:23Z</time></trkpt><trkpt lat="42.07833951696459" lon="-1.5853330004593975"><ele>252.0</ele><time>2026-03-31T08:39:24Z</time></trkpt><trkpt lat="42.07812922559987" lon="-1.5853801937017775"><ele>251.66666666666669</ele><time>2026-03-31T08:39:25Z</time></trkpt><trkpt lat="42.07793983612369" lon="-1.5854252994436429"><ele>251.33333333333334</ele><time>2026-03-31T08:39:26Z</time></trkpt><trkpt lat="42.0777551597513" lon="-1.5854678781384517"><ele>251.0</ele><time>2026-03-31T08:39:27Z</time></trkpt><trkpt lat="42.07756370794621" lon="-1.5855126635621573"><ele>252.0</ele><time>2026-03-31T08:39:28Z</time></trkpt><trkpt lat="42.07737380405749" lon="-1.5855547672001677"><ele>253.0</ele><time>2026-03-31T08:39:29Z</time></trkpt><trkpt lat="42.077182912817484" lon="-1.5856045849240716"><ele>254.0</ele><time>2026-03-31T08:39:30Z</time></trkpt><trkpt lat="42.07698942046552" lon="-1.5856568422715047"><ele>254.0</ele><time>2026-03-31T08:39:31Z</time></trkpt><trkpt lat="42.07678938851625" lon="-1.5857070000849889"><ele>254.0</ele><time>2026-03-31T08:39:32Z</time></trkpt><trkpt lat="42.07658514525924" lon="-1.5857603603172512"><ele>254.0</ele><time>2026-03-31T08:39:33Z</time></trkpt><trkpt lat="42.076378448817316" lon="-1.585817367735041"><ele>252.33333333333334</ele><time>2026-03-31T08:39:34Z</time></trkpt><trkpt lat="42.07622828813738" lon="-1.585874722975437"><ele>250.66666666666669</ele><time>2026-03-31T08:39:35Z</time></trkpt><trkpt lat="42.076026045927264" lon="-1.5859685710433342"><ele>249.0</ele><time>2026-03-31T08:39:36Z</time></trkpt><trkpt lat="42.07585024085684" lon="-1.5861204914304712"><ele>249.0</ele><time>2026-03-31T08:39:37Z</time></trkpt><trkpt lat="42.07566613243549" lon="-1.5862506929665705"><ele>249.0</ele><time>2026-03-31T08:39:38Z</time></trkpt><trkpt lat="42.07550609840682" lon="-1.5864267130481748"><ele>249.0</ele><time>2026-03-31T08:39:39Z</time></trkpt><trkpt lat="42.07535114628229" lon="-1.5866086089868023"><ele>249.0</ele><time>2026-03-31T08:39:40.001Z</time></trkpt><trkpt lat="42.07519582939587" lon="-1.58679164299716"><ele>249.0</ele><time>2026-03-31T08:39:41Z</time></trkpt><trkpt lat="42.07504043961227" lon="-1.5869719287523876"><ele>249.0</ele><time>2026-03-31T08:39:42Z</time></trkpt><trkpt lat="42.074887600622546" lon="-1.5871527072047444"><ele>249.66666666666669</ele><time>2026-03-31T08:39:43Z</time></trkpt><trkpt lat="42.07473938300533" lon="-1.5873385697720752"><ele>250.33333333333334</ele><time>2026-03-31T08:39:44Z</time></trkpt><trkpt lat="42.07459412682094" lon="-1.5875348118669594"><ele>251.0</ele><time>2026-03-31T08:39:45Z</time></trkpt><trkpt lat="42.07445184529873" lon="-1.5877392285208698"><ele>251.0</ele><time>2026-03-31T08:39:46Z</time></trkpt><trkpt lat="42.07430681654012" lon="-1.587946099279153"><ele>251.0</ele><time>2026-03-31T08:39:47Z</time></trkpt><trkpt lat="42.07415746264838" lon="-1.5881443228998353"><ele>251.0</ele><time>2026-03-31T08:39:48Z</time></trkpt><trkpt lat="42.07400854824894" lon="-1.588341651040197"><ele>251.0</ele><time>2026-03-31T08:39:49Z</time></trkpt><trkpt lat="42.07385921708751" lon="-1.5885392957408064"><ele>251.0</ele><time>2026-03-31T08:39:50Z</time></trkpt><trkpt lat="42.07370185387573" lon="-1.5887221746341709"><ele>251.0</ele><time>2026-03-31T08:39:51Z</time></trkpt><trkpt lat="42.073538808754975" lon="-1.5888940934037052"><ele>251.0</ele><time>2026-03-31T08:39:52Z</time></trkpt><trkpt lat="42.07337160182315" lon="-1.5890583827860414"><ele>251.0</ele><time>2026-03-31T08:39:53Z</time></trkpt><trkpt lat="42.073205283539345" lon="-1.5892245839841619"><ele>251.0</ele><time>2026-03-31T08:39:54Z</time></trkpt><trkpt lat="42.073043893128556" lon="-1.5893919320801246"><ele>251.33333333333334</ele><time>2026-03-31T08:39:55Z</time></trkpt><trkpt lat="42.072874768659176" lon="-1.5895659280845968"><ele>251.66666666666669</ele><time>2026-03-31T08:39:56Z</time></trkpt><trkpt lat="42.072705307388325" lon="-1.5897367504355184"><ele>252.0</ele><time>2026-03-31T08:39:57Z</time></trkpt><trkpt lat="42.07252480983341" lon="-1.5898852253529088"><ele>251.0</ele><time>2026-03-31T08:39:58Z</time></trkpt><trkpt lat="42.072333031029345" lon="-1.5900146308050693"><ele>250.0</ele><time>2026-03-31T08:39:59Z</time></trkpt><trkpt lat="42.072143494259635" lon="-1.5901542706316607"><ele>249.0</ele><time>2026-03-31T08:40:00Z</time></trkpt><trkpt lat="42.071953031406586" lon="-1.5902991402446216"><ele>249.33333333333331</ele><time>2026-03-31T08:40:01Z</time></trkpt><trkpt lat="42.07176023345245" lon="-1.5904387417386916"><ele>249.66666666666666</ele><time>2026-03-31T08:40:02Z</time></trkpt><trkpt lat="42.07156894170178" lon="-1.5905785317583268"><ele>250.0</ele><time>2026-03-31T08:40:03Z</time></trkpt><trkpt lat="42.07138057951501" lon="-1.5907227107457018"><ele>250.33333333333331</ele><time>2026-03-31T08:40:04Z</time></trkpt><trkpt lat="42.071202018688616" lon="-1.5908707872305503"><ele>250.66666666666669</ele><time>2026-03-31T08:40:05Z</time></trkpt><trkpt lat="42.071038705051855" lon="-1.5910336864730972"><ele>251.0</ele><time>2026-03-31T08:40:06Z</time></trkpt><trkpt lat="42.07091959797481" lon="-1.5912561037401647"><ele>251.0</ele><time>2026-03-31T08:40:07Z</time></trkpt><trkpt lat="42.070817127780344" lon="-1.5914915335489868"><ele>251.0</ele><time>2026-03-31T08:40:08Z</time></trkpt><trkpt lat="42.070728100812396" lon="-1.5917473312077908"><ele>251.0</ele><time>2026-03-31T08:40:09Z</time></trkpt><trkpt lat="42.070633131433674" lon="-1.5920153755703386"><ele>251.0</ele><time>2026-03-31T08:40:10Z</time></trkpt><trkpt lat="42.07052704409798" lon="-1.5922894373981595"><ele>251.0</ele><time>2026-03-31T08:40:11Z</time></trkpt><trkpt lat="42.07042640517957" lon="-1.5925774985643433"><ele>250.5</ele><time>2026-03-31T08:40:12Z</time></trkpt><trkpt lat="42.07032552803016" lon="-1.5928634022277095"><ele>250.0</ele><time>2026-03-31T08:40:13Z</time></trkpt><trkpt lat="42.07023979121513" lon="-1.593142402051936"><ele>250.0</ele><time>2026-03-31T08:40:14Z</time></trkpt><trkpt lat="42.070140972514906" lon="-1.593413187713558"><ele>250.0</ele><time>2026-03-31T08:40:15Z</time></trkpt><trkpt lat="42.07004781506533" lon="-1.5936725102192368"><ele>250.0</ele><time>2026-03-31T08:40:16Z</time></trkpt><trkpt lat="42.06995159786887" lon="-1.5939286514902875"><ele>249.66666666666666</ele><time>2026-03-31T08:40:17Z</time></trkpt><trkpt lat="42.0698416695006" lon="-1.5941752112701313"><ele>249.33333333333331</ele><time>2026-03-31T08:40:18Z</time></trkpt><trkpt lat="42.06972158334952" lon="-1.5944062118683324"><ele>249.0</ele><time>2026-03-31T08:40:19Z</time></trkpt><trkpt lat="42.06960270592452" lon="-1.5946316934400933"><ele>250.0</ele><time>2026-03-31T08:40:20Z</time></trkpt><trkpt lat="42.069494051009116" lon="-1.5948589377837519"><ele>251.0</ele><time>2026-03-31T08:40:21Z</time></trkpt><trkpt lat="42.06939220351681" lon="-1.5950847171548448"><ele>252.0</ele><time>2026-03-31T08:40:22Z</time></trkpt><trkpt lat="42.06928863935142" lon="-1.5953052691672907"><ele>252.0</ele><time>2026-03-31T08:40:23Z</time></trkpt><trkpt lat="42.069183005016484" lon="-1.5955247182841035"><ele>252.0</ele><time>2026-03-31T08:40:24Z</time></trkpt><trkpt lat="42.069077956730915" lon="-1.5957463494249498"><ele>252.0</ele><time>2026-03-31T08:40:25Z</time></trkpt><trkpt lat="42.06897275258226" lon="-1.5959667877650368"><ele>252.66666666666669</ele><time>2026-03-31T08:40:26Z</time></trkpt><trkpt lat="42.06886859609745" lon="-1.5961908437817465"><ele>253.33333333333334</ele><time>2026-03-31T08:40:27Z</time></trkpt><trkpt lat="42.06876243569008" lon="-1.5964168574860165"><ele>254.0</ele><time>2026-03-31T08:40:28Z</time></trkpt><trkpt lat="42.068654812513266" lon="-1.5966387908101896"><ele>254.0</ele><time>2026-03-31T08:40:29Z</time></trkpt><trkpt lat="42.068545394191936" lon="-1.5968615858700004"><ele>254.0</ele><time>2026-03-31T08:40:30Z</time></trkpt><trkpt lat="42.068438399730454" lon="-1.5970816294489634"><ele>254.0</ele><time>2026-03-31T08:40:31Z</time></trkpt><trkpt lat="42.06833423846854" lon="-1.5972991948868769"><ele>254.0</ele><time>2026-03-31T08:40:32Z</time></trkpt><trkpt lat="42.06823218755526" lon="-1.597514448716613"><ele>254.0</ele><time>2026-03-31T08:40:33Z</time></trkpt><trkpt lat="42.068128909742846" lon="-1.5977274636591197"><ele>254.0</ele><time>2026-03-31T08:40:34Z</time></trkpt><trkpt lat="42.06802774179149" lon="-1.5979383673853769"><ele>254.0</ele><time>2026-03-31T08:40:35Z</time></trkpt><trkpt lat="42.067928899804485" lon="-1.5981479440487372"><ele>254.0</ele><time>2026-03-31T08:40:36Z</time></trkpt><trkpt lat="42.067831156789644" lon="-1.5983501394404183"><ele>254.0</ele><time>2026-03-31T08:40:37Z</time></trkpt><trkpt lat="42.06773504795349" lon="-1.5985417335977643"><ele>254.66666666666669</ele><time>2026-03-31T08:40:38Z</time></trkpt><trkpt lat="42.06763966597688" lon="-1.5987326257328154"><ele>255.33333333333331</ele><time>2026-03-31T08:40:39Z</time></trkpt><trkpt lat="42.06754289383897" lon="-1.5989277511284976"><ele>256.0</ele><time>2026-03-31T08:40:40Z</time></trkpt><trkpt lat="42.06744722725771" lon="-1.5991268952499695"><ele>256.0</ele><time>2026-03-31T08:40:41Z</time></trkpt><trkpt lat="42.06735377510031" lon="-1.5993256765193697"><ele>256.0</ele><time>2026-03-31T08:40:42Z</time></trkpt><trkpt lat="42.067259704036275" lon="-1.5995283771800821"><ele>256.0</ele><time>2026-03-31T08:40:43Z</time></trkpt><trkpt lat="42.06716830046357" lon="-1.5997272956734927"><ele>256.0</ele><time>2026-03-31T08:40:44Z</time></trkpt><trkpt lat="42.06708322589155" lon="-1.5999112067078691"><ele>256.0</ele><time>2026-03-31T08:40:45Z</time></trkpt><trkpt lat="42.067005416761425" lon="-1.6000737163137762"><ele>256.0</ele><time>2026-03-31T08:40:46Z</time></trkpt><trkpt lat="42.06695966239179" lon="-1.600164600497813"><ele>256.0</ele><time>2026-03-31T08:40:47Z</time></trkpt><trkpt lat="42.0668826019208" lon="-1.6003347003350432"><ele>255.0</ele><time>2026-03-31T08:40:49Z</time></trkpt><trkpt lat="42.06682844298559" lon="-1.600465221480963"><ele>254.00000000000003</ele><time>2026-03-31T08:40:50Z</time></trkpt><trkpt lat="42.06677974782869" lon="-1.6005979032470645"><ele>253.00000000000003</ele><time>2026-03-31T08:40:51Z</time></trkpt><trkpt lat="42.066738103702136" lon="-1.600702264620639"><ele>252.0</ele><time>2026-03-31T08:40:52Z</time></trkpt><trkpt lat="42.066700251987974" lon="-1.600787556365449"><ele>251.0</ele><time>2026-03-31T08:40:53Z</time></trkpt><trkpt lat="42.06666298221222" lon="-1.600872626973286"><ele>251.00000000000003</ele><time>2026-03-31T08:40:54Z</time></trkpt><trkpt lat="42.066627895596135" lon="-1.6009516727424675"><ele>251.0</ele><time>2026-03-31T08:40:55Z</time></trkpt><trkpt lat="42.06659556148713" lon="-1.6010248837912437"><ele>251.0</ele><time>2026-03-31T08:40:56Z</time></trkpt><trkpt lat="42.06652913366201" lon="-1.6011773711580903"><ele>251.0</ele><time>2026-03-31T08:40:58Z</time></trkpt><trkpt lat="42.066490039588" lon="-1.6012663793171027"><ele>251.00000000000003</ele><time>2026-03-31T08:40:59Z</time></trkpt><trkpt lat="42.06644819528858" lon="-1.601365891757749"><ele>251.0</ele><time>2026-03-31T08:41:00Z</time></trkpt><trkpt lat="42.066400697755334" lon="-1.6014766460477963"><ele>251.4</ele><time>2026-03-31T08:41:01Z</time></trkpt><trkpt lat="42.0663485509914" lon="-1.6015967607501622"><ele>251.8</ele><time>2026-03-31T08:41:02Z</time></trkpt><trkpt lat="42.06629193000123" lon="-1.6017229385275902"><ele>252.20000000000002</ele><time>2026-03-31T08:41:03Z</time></trkpt><trkpt lat="42.066231541644164" lon="-1.601855036799348"><ele>252.60000000000002</ele><time>2026-03-31T08:41:04Z</time></trkpt><trkpt lat="42.06616714657558" lon="-1.6019925607841077"><ele>253.0</ele><time>2026-03-31T08:41:05Z</time></trkpt><trkpt lat="42.06610136231863" lon="-1.6021376532139862"><ele>253.0</ele><time>2026-03-31T08:41:06Z</time></trkpt><trkpt lat="42.06603719057076" lon="-1.6022852312987699"><ele>253.0</ele><time>2026-03-31T08:41:07Z</time></trkpt><trkpt lat="42.065972013015276" lon="-1.6024224980685882"><ele>253.0</ele><time>2026-03-31T08:41:08Z</time></trkpt><trkpt lat="42.06591252438794" lon="-1.6025551644402625"><ele>253.0</ele><time>2026-03-31T08:41:09Z</time></trkpt><trkpt lat="42.06586349528383" lon="-1.6026800906891763"><ele>253.0</ele><time>2026-03-31T08:41:10Z</time></trkpt><trkpt lat="42.06581496620063" lon="-1.6027942560433082"><ele>253.0</ele><time>2026-03-31T08:41:11Z</time></trkpt><trkpt lat="42.065762222348404" lon="-1.6029029142112075"><ele>253.0</ele><time>2026-03-31T08:41:12Z</time></trkpt><trkpt lat="42.065705809974226" lon="-1.6030107050143911"><ele>253.0</ele><time>2026-03-31T08:41:13Z</time></trkpt><trkpt lat="42.065647267465856" lon="-1.6031212872140796"><ele>253.0</ele><time>2026-03-31T08:41:14Z</time></trkpt><trkpt lat="42.065588675138045" lon="-1.6032196735765936"><ele>253.66666666666666</ele><time>2026-03-31T08:41:15Z</time></trkpt><trkpt lat="42.06553520672188" lon="-1.603297643111323"><ele>254.33333333333331</ele><time>2026-03-31T08:41:16Z</time></trkpt><trkpt lat="42.06548535037523" lon="-1.6033682917419676"><ele>255.0</ele><time>2026-03-31T08:41:17Z</time></trkpt><trkpt lat="42.06543804264753" lon="-1.6034289475929884"><ele>255.66666666666669</ele><time>2026-03-31T08:41:18Z</time></trkpt><trkpt lat="42.06534655711374" lon="-1.6035201466586047"><ele>256.33333333333337</ele><time>2026-03-31T08:41:20Z</time></trkpt><trkpt lat="42.06527287432382" lon="-1.6036190513535473"><ele>257.0</ele><time>2026-03-31T08:41:22Z</time></trkpt><trkpt lat="42.06523066730381" lon="-1.6037151648520653"><ele>258.0</ele><time>2026-03-31T08:41:24Z</time></trkpt><trkpt lat="42.06520078114618" lon="-1.6038283514533305"><ele>259.0</ele><time>2026-03-31T08:41:26Z</time></trkpt><trkpt lat="42.0651814912719" lon="-1.603909551775441"><ele>260.0</ele><time>2026-03-31T08:41:27Z</time></trkpt><trkpt lat="42.065168229278505" lon="-1.6040123184818837"><ele>261.0</ele><time>2026-03-31T08:41:28Z</time></trkpt><trkpt lat="42.06514711344629" lon="-1.6040940035722353"><ele>262.0</ele><time>2026-03-31T08:41:29Z</time></trkpt><trkpt lat="42.06512100273703" lon="-1.6042485623748595"><ele>263.0</ele><time>2026-03-31T08:41:31Z</time></trkpt><trkpt lat="42.06511826021968" lon="-1.6044183628530206"><ele>263.33333333333337</ele><time>2026-03-31T08:41:33Z</time></trkpt><trkpt lat="42.06511313910849" lon="-1.6045194835176673"><ele>263.6666666666667</ele><time>2026-03-31T08:41:34Z</time></trkpt><trkpt lat="42.06508159810406" lon="-1.6046061095363067"><ele>264.0</ele><time>2026-03-31T08:41:35Z</time></trkpt><trkpt lat="42.06505452845729" lon="-1.6046912792716899"><ele>264.3333333333333</ele><time>2026-03-31T08:41:36Z</time></trkpt><trkpt lat="42.06501423498358" lon="-1.6048383375876587"><ele>264.66666666666663</ele><time>2026-03-31T08:41:38Z</time></trkpt><trkpt lat="42.06498153321317" lon="-1.6049770485301627"><ele>265.0</ele><time>2026-03-31T08:41:40Z</time></trkpt><trkpt lat="42.0649350392274" lon="-1.6051435963130634"><ele>265.25</ele><time>2026-03-31T08:41:42Z</time></trkpt><trkpt lat="42.06488397443956" lon="-1.6052893225402725"><ele>265.5</ele><time>2026-03-31T08:41:44Z</time></trkpt><trkpt lat="42.06484646512405" lon="-1.6054438653735945"><ele>265.75</ele><time>2026-03-31T08:41:46Z</time></trkpt><trkpt lat="42.064846239684165" lon="-1.6055738857632202"><ele>266.0</ele><time>2026-03-31T08:41:48Z</time></trkpt><trkpt lat="42.06479459382045" lon="-1.6057231774669845"><ele>266.5</ele><time>2026-03-31T08:41:50Z</time></trkpt><trkpt lat="42.06482467671302" lon="-1.6058543856975105"><ele>267.0</ele><time>2026-03-31T08:41:52Z</time></trkpt><trkpt lat="42.06482464822048" lon="-1.6059996885788135"><ele>267.5</ele><time>2026-03-31T08:41:54Z</time></trkpt><trkpt lat="42.06480593639485" lon="-1.6061250391201638"><ele>268.0</ele><time>2026-03-31T08:41:56Z</time></trkpt><trkpt lat="42.06477534845051" lon="-1.6062011839145829"><ele>268.5</ele><time>2026-03-31T08:41:57Z</time></trkpt><trkpt lat="42.06475545385495" lon="-1.6062878384321138"><ele>269.0</ele><time>2026-03-31T08:41:59Z</time></trkpt><trkpt lat="42.06475433575476" lon="-1.6063849938196737"><ele>269.4</ele><time>2026-03-31T08:42:01Z</time></trkpt><trkpt lat="42.06476189934466" lon="-1.6064941235654508"><ele>269.79999999999995</ele><time>2026-03-31T08:42:03Z</time></trkpt><trkpt lat="42.06476169263484" lon="-1.6065854371403552"><ele>270.20000000000005</ele><time>2026-03-31T08:42:04Z</time></trkpt><trkpt lat="42.06475324533218" lon="-1.606750844782645"><ele>270.6</ele><time>2026-03-31T08:42:06Z</time></trkpt><trkpt lat="42.06473565234766" lon="-1.6068814266420055"><ele>271.0</ele><time>2026-03-31T08:42:08Z</time></trkpt><trkpt lat="42.06477229939583" lon="-1.6070322117934839"><ele>271.16666666666663</ele><time>2026-03-31T08:42:10Z</time></trkpt><trkpt lat="42.06485833678979" lon="-1.607140574389248"><ele>271.3333333333333</ele><time>2026-03-31T08:42:12Z</time></trkpt><trkpt lat="42.06490832377358" lon="-1.6072043369180595"><ele>271.5</ele><time>2026-03-31T08:42:13Z</time></trkpt><trkpt lat="42.064962007153945" lon="-1.6072657527926622"><ele>271.6666666666667</ele><time>2026-03-31T08:42:14Z</time></trkpt><trkpt lat="42.065003010858916" lon="-1.6073324763602572"><ele>271.83333333333337</ele><time>2026-03-31T08:42:15Z</time></trkpt><trkpt lat="42.065075444642666" lon="-1.607438533479654"><ele>272.0</ele><time>2026-03-31T08:42:17Z</time></trkpt><trkpt lat="42.06511211842037" lon="-1.607533896411965"><ele>271.6666666666667</ele><time>2026-03-31T08:42:19Z</time></trkpt><trkpt lat="42.06515972208393" lon="-1.6076398024162915"><ele>271.33333333333337</ele><time>2026-03-31T08:42:22Z</time></trkpt><trkpt lat="42.06518946778145" lon="-1.607736474569639"><ele>271.0</ele><time>2026-03-31T08:42:24Z</time></trkpt><trkpt lat="42.065091521687805" lon="-1.6078407500198646"><ele>270.6666666666667</ele><time>2026-03-31T08:42:28Z</time></trkpt><trkpt lat="42.06501152570677" lon="-1.6078685250984885"><ele>270.3333333333333</ele><time>2026-03-31T08:42:29Z</time></trkpt><trkpt lat="42.06494805463245" lon="-1.6078941153451907"><ele>270.0</ele><time>2026-03-31T08:42:30Z</time></trkpt><trkpt lat="42.06483393772684" lon="-1.6079205160400332"><ele>270.0</ele><time>2026-03-31T08:42:32Z</time></trkpt><trkpt lat="42.06473217292053" lon="-1.6079452387186686"><ele>270.0</ele><time>2026-03-31T08:42:34Z</time></trkpt><trkpt lat="42.064669921331955" lon="-1.6079730471218565"><ele>270.0</ele><time>2026-03-31T08:42:36Z</time></trkpt><trkpt lat="42.064607993962916" lon="-1.6080332768047267"><ele>270.0</ele><time>2026-03-31T08:42:38Z</time></trkpt><trkpt lat="42.06455191451148" lon="-1.608113858737131"><ele>270.0</ele><time>2026-03-31T08:42:41Z</time></trkpt><trkpt lat="42.06449249691197" lon="-1.6081667314119314"><ele>270.0</ele><time>2026-03-31T08:42:44Z</time></trkpt><trkpt lat="42.06440387292105" lon="-1.6082061492403592"><ele>270.0</ele><time>2026-03-31T08:42:46Z</time></trkpt><trkpt lat="42.06432406892731" lon="-1.6082526127119758"><ele>270.0</ele><time>2026-03-31T08:42:48Z</time></trkpt><trkpt lat="42.064196018770275" lon="-1.6083024962399186"><ele>270.0</ele><time>2026-03-31T08:42:50Z</time></trkpt><trkpt lat="42.0641347145384" lon="-1.6083506197733173"><ele>270.0</ele><time>2026-03-31T08:42:53Z</time></trkpt><trkpt lat="42.064058458384515" lon="-1.6083040175155523"><ele>270.0</ele><time>2026-03-31T08:42:55Z</time></trkpt><trkpt lat="42.06398657945956" lon="-1.608248410571335"><ele>270.3333333333333</ele><time>2026-03-31T08:42:57Z</time></trkpt><trkpt lat="42.06392785155456" lon="-1.6081667900135306"><ele>270.6666666666667</ele><time>2026-03-31T08:43:00Z</time></trkpt><trkpt lat="42.063898804225516" lon="-1.60804834678826"><ele>271.0</ele><time>2026-03-31T08:43:02Z</time></trkpt><trkpt lat="42.06383360224746" lon="-1.607969666075938"><ele>271.33333333333337</ele><time>2026-03-31T08:43:04Z</time></trkpt><trkpt lat="42.0637941383069" lon="-1.6078723015690195"><ele>271.6666666666667</ele><time>2026-03-31T08:43:06Z</time></trkpt><trkpt lat="42.063841274249576" lon="-1.607761434285113"><ele>272.0</ele><time>2026-03-31T08:43:08Z</time></trkpt><trkpt lat="42.06388657383888" lon="-1.6076677712278165"><ele>272.0</ele><time>2026-03-31T08:43:11Z</time></trkpt><trkpt lat="42.063908616419965" lon="-1.607580189136273"><ele>272.0</ele><time>2026-03-31T08:43:14Z</time></trkpt><trkpt lat="42.06395101770042" lon="-1.607481399491649"><ele>272.0</ele><time>2026-03-31T08:43:38Z</time></trkpt><trkpt lat="42.06397900267049" lon="-1.6073325380658068"><ele>272.0</ele><time>2026-03-31T08:43:41Z</time></trkpt><trkpt lat="42.06397629805583" lon="-1.607224613685057"><ele>272.0</ele><time>2026-03-31T08:43:43Z</time></trkpt><trkpt lat="42.06397418809641" lon="-1.60710393180334"><ele>272.0</ele><time>2026-03-31T08:43:45Z</time></trkpt><trkpt lat="42.063951525977814" lon="-1.6069860819061428"><ele>272.0</ele><time>2026-03-31T08:43:47Z</time></trkpt><trkpt lat="42.0639339719691" lon="-1.6068853940645271"><ele>272.0</ele><time>2026-03-31T08:43:49Z</time></trkpt><trkpt lat="42.0639243179675" lon="-1.6067671133403736"><ele>272.0</ele><time>2026-03-31T08:43:51Z</time></trkpt><trkpt lat="42.06391597084966" lon="-1.6066484721482563"><ele>272.0</ele><time>2026-03-31T08:43:53Z</time></trkpt><trkpt lat="42.063897229102736" lon="-1.6065192819272636"><ele>272.0</ele><time>2026-03-31T08:43:55Z</time></trkpt><trkpt lat="42.063879339512376" lon="-1.606435004564538"><ele>272.0</ele><time>2026-03-31T08:43:57Z</time></trkpt><trkpt lat="42.063839307618565" lon="-1.6063645830206772"><ele>272.0</ele><time>2026-03-31T08:44:04Z</time></trkpt><trkpt lat="42.06376835992865" lon="-1.606341399056331"><ele>272.0</ele><time>2026-03-31T08:44:05Z</time></trkpt><trkpt lat="42.063693223591066" lon="-1.6063315545239167"><ele>272.0</ele><time>2026-03-31T08:44:06Z</time></trkpt><trkpt lat="42.063634352723724" lon="-1.6062729378743708"><ele>272.0</ele><time>2026-03-31T08:44:07Z</time></trkpt><trkpt lat="42.06357661965012" lon="-1.606227330508317"><ele>272.0</ele><time>2026-03-31T08:44:08Z</time></trkpt><trkpt lat="42.063516912327096" lon="-1.6061889323227994"><ele>272.0</ele><time>2026-03-31T08:44:09Z</time></trkpt><trkpt lat="42.063418366071865" lon="-1.6061294244374205"><ele>271.4</ele><time>2026-03-31T08:44:11Z</time></trkpt><trkpt lat="42.06332347232217" lon="-1.6061014855465443"><ele>270.79999999999995</ele><time>2026-03-31T08:44:13Z</time></trkpt><trkpt lat="42.06324769431676" lon="-1.6060745320146077"><ele>270.2</ele><time>2026-03-31T08:44:15Z</time></trkpt><trkpt lat="42.063189646418245" lon="-1.606036488667026"><ele>269.59999999999997</ele><time>2026-03-31T08:44:18Z</time></trkpt><trkpt lat="42.06310606042579" lon="-1.6060007094999478"><ele>269.0</ele><time>2026-03-31T08:46:47Z</time></trkpt><trkpt lat="42.063184773961346" lon="-1.6058369186368284"><ele>268.33333333333337</ele><time>2026-03-31T08:46:52Z</time></trkpt><trkpt lat="42.06311462046155" lon="-1.605735768412839"><ele>267.6666666666667</ele><time>2026-03-31T08:47:39Z</time></trkpt><trkpt lat="42.063054994481085" lon="-1.6056543916626167"><ele>267.0</ele><time>2026-03-31T08:47:41Z</time></trkpt><trkpt lat="42.06301489177979" lon="-1.6055700337555365"><ele>266.3333333333333</ele><time>2026-03-31T08:47:43Z</time></trkpt><trkpt lat="42.06295868077915" lon="-1.6055102941933066"><ele>265.66666666666663</ele><time>2026-03-31T08:47:46Z</time></trkpt><trkpt lat="42.06290297464643" lon="-1.6054487699113658"><ele>265.0</ele><time>2026-03-31T08:47:49Z</time></trkpt><trkpt lat="42.062971814147225" lon="-1.605329261797573"><ele>264.66666666666663</ele><time>2026-03-31T08:47:50Z</time></trkpt><trkpt lat="42.06294930047137" lon="-1.60523511343689"><ele>264.3333333333333</ele><time>2026-03-31T08:47:52Z</time></trkpt><trkpt lat="42.062955747640345" lon="-1.6051075985566963"><ele>264.0</ele><time>2026-03-31T08:47:54Z</time></trkpt><trkpt lat="42.06296090939518" lon="-1.6049949332286841"><ele>263.6666666666667</ele><time>2026-03-31T08:47:56Z</time></trkpt><trkpt lat="42.062958703124394" lon="-1.6048790696986028"><ele>263.33333333333337</ele><time>2026-03-31T08:47:58Z</time></trkpt><trkpt lat="42.06294984279089" lon="-1.6047637243614294"><ele>263.0</ele><time>2026-03-31T08:48:00Z</time></trkpt><trkpt lat="42.062930975813174" lon="-1.604671061142719"><ele>263.0</ele><time>2026-03-31T08:48:02Z</time></trkpt><trkpt lat="42.06288664747415" lon="-1.604574538874622"><ele>263.0</ele><time>2026-03-31T08:48:04Z</time></trkpt><trkpt lat="42.062865295618494" lon="-1.6044804876040961"><ele>263.0</ele><time>2026-03-31T08:48:06Z</time></trkpt><trkpt lat="42.06283795345898" lon="-1.604390891725394"><ele>263.0</ele><time>2026-03-31T08:48:08Z</time></trkpt><trkpt lat="42.06279023604159" lon="-1.6043073724116097"><ele>263.0</ele><time>2026-03-31T08:48:10Z</time></trkpt><trkpt lat="42.06275243354475" lon="-1.60423173442358"><ele>263.0</ele><time>2026-03-31T08:48:12Z</time></trkpt><trkpt lat="42.06270971729885" lon="-1.6041567278776252"><ele>263.0</ele><time>2026-03-31T08:48:14Z</time></trkpt><trkpt lat="42.06266701213822" lon="-1.6040527552419677"><ele>263.0</ele><time>2026-03-31T08:48:17Z</time></trkpt><trkpt lat="42.06265731442729" lon="-1.6039508537212375"><ele>263.0</ele><time>2026-03-31T08:48:20Z</time></trkpt><trkpt lat="42.06266445538177" lon="-1.6038238437486887"><ele>263.0</ele><time>2026-03-31T08:48:23Z</time></trkpt><trkpt lat="42.06266964398446" lon="-1.6037322406459642"><ele>263.0</ele><time>2026-03-31T08:48:25Z</time></trkpt><trkpt lat="42.06267554926027" lon="-1.6036393939504061"><ele>263.0</ele><time>2026-03-31T08:48:27Z</time></trkpt><trkpt lat="42.062740075318445" lon="-1.6035579622077385"><ele>263.0</ele><time>2026-03-31T08:48:29Z</time></trkpt><trkpt lat="42.06270382871516" lon="-1.6034598938915336"><ele>263.0</ele><time>2026-03-31T08:48:32Z</time></trkpt><trkpt lat="42.06261062831801" lon="-1.6034560258794337"><ele>263.0</ele><time>2026-03-31T08:48:35Z</time></trkpt><trkpt lat="42.06252835659533" lon="-1.603423473405335"><ele>263.0</ele><time>2026-03-31T08:48:48Z</time></trkpt><trkpt lat="42.06247080135261" lon="-1.603337719183337"><ele>263.0</ele><time>2026-03-31T08:48:50Z</time></trkpt><trkpt lat="42.06239850197535" lon="-1.6032715875973023"><ele>263.0</ele><time>2026-03-31T08:48:52Z</time></trkpt><trkpt lat="42.062331845273825" lon="-1.6032497333966198"><ele>263.0</ele><time>2026-03-31T08:48:54Z</time></trkpt><trkpt lat="42.06226880910419" lon="-1.6032324723669127"><ele>264.75</ele><time>2026-03-31T08:48:56Z</time></trkpt><trkpt lat="42.06220644769299" lon="-1.6032489270939994"><ele>266.5</ele><time>2026-03-31T08:49:00Z</time></trkpt><trkpt lat="42.062148604427826" lon="-1.6031882879186243"><ele>268.25</ele><time>2026-03-31T08:49:53Z</time></trkpt><trkpt lat="42.062064992153914" lon="-1.60358003326933"><ele>270.0</ele><time>2026-03-31T08:51:08.877Z</time></trkpt><trkpt lat="42.06216598395348" lon="-1.603300366961766"><ele>270.0</ele><time>2026-03-31T08:51:10.58Z</time></trkpt><trkpt lat="42.06217247050372" lon="-1.603215400808846"><ele>270.0</ele><time>2026-03-31T08:51:17.531Z</time></trkpt><trkpt lat="42.062184849980056" lon="-1.6031040166592585"><ele>270.0</ele><time>2026-03-31T08:51:19.023Z</time></trkpt><trkpt lat="42.06230445452593" lon="-1.603332147792555"><ele>270.0</ele><time>2026-03-31T08:52:52.5Z</time></trkpt><trkpt lat="42.06226679853014" lon="-1.6032498857800934"><ele>270.0</ele><time>2026-03-31T08:53:05Z</time></trkpt><trkpt lat="42.0621632938377" lon="-1.6033039408251677"><ele>270.0</ele><time>2026-03-31T08:53:10.027Z</time></trkpt><trkpt lat="42.06209947005288" lon="-1.6033262992044222"><ele>270.0</ele><time>2026-03-31T08:53:11.026Z</time></trkpt><trkpt lat="42.062149379621154" lon="-1.6032678836126868"><ele>270.0</ele><time>2026-03-31T08:53:12.026Z</time></trkpt><trkpt lat="42.06223577170283" lon="-1.6031417303815478"><ele>270.0</ele><time>2026-03-31T08:53:25.676Z</time></trkpt><trkpt lat="42.06227711590951" lon="-1.6030537219311054"><ele>270.0</ele><time>2026-03-31T08:53:26.626Z</time></trkpt><trkpt lat="42.06234191878687" lon="-1.6029828983317667"><ele>270.0</ele><time>2026-03-31T08:53:28.526Z</time></trkpt><trkpt lat="42.06224768400823" lon="-1.6030701008536006"><ele>270.0</ele><time>2026-03-31T08:53:35.076Z</time></trkpt><trkpt lat="42.0621934216308" lon="-1.6031707375203441"><ele>270.0</ele><time>2026-03-31T08:53:57.266Z</time></trkpt><trkpt lat="42.06217992700441" lon="-1.603359595822107"><ele>270.0</ele><time>2026-03-31T08:57:09.025Z</time></trkpt><trkpt lat="42.06225831981131" lon="-1.6034290642475622"><ele>270.0</ele><time>2026-03-31T08:57:45Z</time></trkpt><trkpt lat="42.0623034821063" lon="-1.6033439006471952"><ele>270.0</ele><time>2026-03-31T08:57:51Z</time></trkpt><trkpt lat="42.062210601637474" lon="-1.603217574654363"><ele>270.0</ele><time>2026-03-31T08:58:17.269Z</time></trkpt><trkpt lat="42.0621472082449" lon="-1.6031280543221755"><ele>270.0</ele><time>2026-03-31T08:58:26.44Z</time></trkpt><trkpt lat="42.062211876141006" lon="-1.6030963715633442"><ele>270.0</ele><time>2026-03-31T08:59:01.05Z</time></trkpt><trkpt lat="42.06215762953977" lon="-1.6031739568439796"><ele>270.0</ele><time>2026-03-31T09:04:45.687Z</time></trkpt><trkpt lat="42.06219004061035" lon="-1.6032565367055291"><ele>270.0</ele><time>2026-03-31T09:04:49.025Z</time></trkpt><trkpt lat="42.06225953455748" lon="-1.6032398021977325"><ele>270.0</ele><time>2026-03-31T09:06:22.026Z</time></trkpt><trkpt lat="42.06219285377589" lon="-1.6031394304903348"><ele>270.0</ele><time>2026-03-31T09:07:29.475Z</time></trkpt><trkpt lat="42.0622825592129" lon="-1.6030121695677242"><ele>270.0</ele><time>2026-03-31T09:09:48.026Z</time></trkpt><trkpt lat="42.062210954308675" lon="-1.6031496646906997"><ele>270.0</ele><time>2026-03-31T09:10:03Z</time></trkpt><trkpt lat="42.0622768769844" lon="-1.6032164843643575"><ele>270.0</ele><time>2026-03-31T09:11:09.026Z</time></trkpt><trkpt lat="42.062303849882774" lon="-1.6030994029421124"><ele>270.0</ele><time>2026-03-31T09:11:14Z</time></trkpt><trkpt lat="42.06230604173098" lon="-1.6030111087947976"><ele>270.0</ele><time>2026-03-31T09:11:16Z</time></trkpt><trkpt lat="42.062247590972" lon="-1.6030617413889976"><ele>270.0</ele><time>2026-03-31T09:11:48Z</time></trkpt><trkpt lat="42.06217870447027" lon="-1.603133373561828"><ele>270.0</ele><time>2026-03-31T09:12:28.471Z</time></trkpt><trkpt lat="42.06217591191111" lon="-1.6034124368374347"><ele>270.0</ele><time>2026-03-31T09:13:08.025Z</time></trkpt><trkpt lat="42.06224721180151" lon="-1.603415163835638"><ele>270.0</ele><time>2026-03-31T09:13:16Z</time></trkpt><trkpt lat="42.06221870225717" lon="-1.6032735104108478"><ele>270.0</ele><time>2026-03-31T09:13:47Z</time></trkpt><trkpt lat="42.062148391448865" lon="-1.6032106566984077"><ele>270.0</ele><time>2026-03-31T09:14:31Z</time></trkpt><trkpt lat="42.06225919643887" lon="-1.6031927752412731"><ele>270.0</ele><time>2026-03-31T09:16:35Z</time></trkpt><trkpt lat="42.06246254741621" lon="-1.6031739139469792"><ele>270.0</ele><time>2026-03-31T09:16:40Z</time></trkpt><trkpt lat="42.062546428738166" lon="-1.6030549086795949"><ele>270.0</ele><time>2026-03-31T09:16:42Z</time></trkpt><trkpt lat="42.06258542935627" lon="-1.6029662983998039"><ele>270.0</ele><time>2026-03-31T09:16:43Z</time></trkpt><trkpt lat="42.06262118208217" lon="-1.6028700014230535"><ele>270.0</ele><time>2026-03-31T09:16:44Z</time></trkpt><trkpt lat="42.06264832867871" lon="-1.6027749911979625"><ele>270.0</ele><time>2026-03-31T09:16:45Z</time></trkpt><trkpt lat="42.06266538678216" lon="-1.6026854955819796"><ele>270.0</ele><time>2026-03-31T09:16:46Z</time></trkpt><trkpt lat="42.06269654704545" lon="-1.6025801438663874"><ele>270.0</ele><time>2026-03-31T09:16:48Z</time></trkpt><trkpt lat="42.062771129769295" lon="-1.6024803964175578"><ele>270.0</ele><time>2026-03-31T09:17:32Z</time></trkpt><trkpt lat="42.062799269954695" lon="-1.6023981471072881"><ele>270.0</ele><time>2026-03-31T09:17:33Z</time></trkpt><trkpt lat="42.06283762710586" lon="-1.6023185691924642"><ele>270.0</ele><time>2026-03-31T09:17:34Z</time></trkpt><trkpt lat="42.06287697404495" lon="-1.6022294652248643"><ele>270.0</ele><time>2026-03-31T09:17:35Z</time></trkpt><trkpt lat="42.06291783013594" lon="-1.6021426139692263"><ele>270.0</ele><time>2026-03-31T09:17:36Z</time></trkpt><trkpt lat="42.06295708942646" lon="-1.6020537794333052"><ele>270.0</ele><time>2026-03-31T09:17:37Z</time></trkpt><trkpt lat="42.06299894204358" lon="-1.6019576977267953"><ele>270.0</ele><time>2026-03-31T09:17:38Z</time></trkpt><trkpt lat="42.06304779975546" lon="-1.6018516492124655"><ele>270.0</ele><time>2026-03-31T09:17:39Z</time></trkpt><trkpt lat="42.06309385837354" lon="-1.6017434320252215"><ele>270.0</ele><time>2026-03-31T09:17:40Z</time></trkpt><trkpt lat="42.063139377809726" lon="-1.6016355431059985"><ele>270.0</ele><time>2026-03-31T09:17:41Z</time></trkpt><trkpt lat="42.06316753725849" lon="-1.6015281349048804"><ele>270.0</ele><time>2026-03-31T09:17:42Z</time></trkpt><trkpt lat="42.06319098972607" lon="-1.6014228573465317"><ele>270.0</ele><time>2026-03-31T09:17:43Z</time></trkpt><trkpt lat="42.063248573866446" lon="-1.601352757940494"><ele>268.1666666666667</ele><time>2026-03-31T09:17:44Z</time></trkpt><trkpt lat="42.06331556202193" lon="-1.6012965847436105"><ele>266.3333333333333</ele><time>2026-03-31T09:17:45Z</time></trkpt><trkpt lat="42.06339523053927" lon="-1.6013136456915347"><ele>264.5</ele><time>2026-03-31T09:17:46Z</time></trkpt><trkpt lat="42.06346013654068" lon="-1.6014194330335316"><ele>262.66666666666663</ele><time>2026-03-31T09:17:47Z</time></trkpt><trkpt lat="42.06352705037752" lon="-1.6014644068076287"><ele>260.8333333333333</ele><time>2026-03-31T09:17:48Z</time></trkpt><trkpt lat="42.06358559232441" lon="-1.6015524947071664"><ele>259.0</ele><time>2026-03-31T09:17:49Z</time></trkpt><trkpt lat="42.06365082562628" lon="-1.6016404994619289"><ele>259.0</ele><time>2026-03-31T09:17:50Z</time></trkpt><trkpt lat="42.063719600911675" lon="-1.6017261684461284"><ele>259.0</ele><time>2026-03-31T09:17:51Z</time></trkpt><trkpt lat="42.06377817855722" lon="-1.6017912248362163"><ele>259.0</ele><time>2026-03-31T09:17:52Z</time></trkpt><trkpt lat="42.063827617798594" lon="-1.6018470300891277"><ele>259.0</ele><time>2026-03-31T09:17:53Z</time></trkpt><trkpt lat="42.063926107185736" lon="-1.6019561182202844"><ele>259.0</ele><time>2026-03-31T09:17:55Z</time></trkpt><trkpt lat="42.06398535055727" lon="-1.602017338676542"><ele>259.0</ele><time>2026-03-31T09:17:56Z</time></trkpt><trkpt lat="42.064043357374075" lon="-1.602079700420467"><ele>259.16666666666663</ele><time>2026-03-31T09:17:57Z</time></trkpt><trkpt lat="42.064100404840836" lon="-1.6021469327126756"><ele>259.3333333333333</ele><time>2026-03-31T09:17:58Z</time></trkpt><trkpt lat="42.0641595840544" lon="-1.6022107111489265"><ele>259.5</ele><time>2026-03-31T09:17:59Z</time></trkpt><trkpt lat="42.06426379179789" lon="-1.6023073601318791"><ele>259.6666666666667</ele><time>2026-03-31T09:18:01Z</time></trkpt><trkpt lat="42.064319076639855" lon="-1.6023625632827614"><ele>259.83333333333337</ele><time>2026-03-31T09:18:02Z</time></trkpt><trkpt lat="42.064375556394396" lon="-1.602425371552592"><ele>260.0</ele><time>2026-03-31T09:18:03Z</time></trkpt><trkpt lat="42.06443399996775" lon="-1.6024894646906116"><ele>259.83333333333337</ele><time>2026-03-31T09:18:04Z</time></trkpt><trkpt lat="42.064496786618456" lon="-1.6025555745903706"><ele>259.6666666666667</ele><time>2026-03-31T09:18:05Z</time></trkpt><trkpt lat="42.06456007195549" lon="-1.60262705890424"><ele>259.5</ele><time>2026-03-31T09:18:06Z</time></trkpt><trkpt lat="42.06462103768702" lon="-1.602689982583886"><ele>259.3333333333333</ele><time>2026-03-31T09:18:07Z</time></trkpt><trkpt lat="42.064687967536905" lon="-1.602762061616251"><ele>259.16666666666663</ele><time>2026-03-31T09:18:08Z</time></trkpt><trkpt lat="42.06475260879827" lon="-1.6028301852212303"><ele>259.0</ele><time>2026-03-31T09:18:09Z</time></trkpt><trkpt lat="42.06481788869001" lon="-1.602897902494191"><ele>259.0</ele><time>2026-03-31T09:18:10Z</time></trkpt><trkpt lat="42.064883011073405" lon="-1.602968900672102"><ele>259.0</ele><time>2026-03-31T09:18:11Z</time></trkpt><trkpt lat="42.064949472289264" lon="-1.6030382576277413"><ele>259.0</ele><time>2026-03-31T09:18:12Z</time></trkpt><trkpt lat="42.06500986055309" lon="-1.603100982855044"><ele>259.0</ele><time>2026-03-31T09:18:13Z</time></trkpt><trkpt lat="42.06509941617163" lon="-1.6031971530946758"><ele>259.0</ele><time>2026-03-31T09:18:15Z</time></trkpt><trkpt lat="42.06520048668329" lon="-1.603298757154837"><ele>258.66666666666663</ele><time>2026-03-31T09:18:17Z</time></trkpt><trkpt lat="42.06525486922948" lon="-1.6033459962774572"><ele>258.3333333333333</ele><time>2026-03-31T09:18:18Z</time></trkpt><trkpt lat="42.06532479009037" lon="-1.6033915501610954"><ele>258.0</ele><time>2026-03-31T09:18:19Z</time></trkpt><trkpt lat="42.065404756134285" lon="-1.6033929107636904"><ele>257.6666666666667</ele><time>2026-03-31T09:18:20Z</time></trkpt><trkpt lat="42.06547930809519" lon="-1.6033565966399732"><ele>257.33333333333337</ele><time>2026-03-31T09:18:21Z</time></trkpt><trkpt lat="42.06552178348622" lon="-1.6032565857495495"><ele>257.0</ele><time>2026-03-31T09:18:22Z</time></trkpt><trkpt lat="42.065585582972176" lon="-1.6031710541040476"><ele>257.0</ele><time>2026-03-31T09:18:23Z</time></trkpt><trkpt lat="42.06564356184978" lon="-1.6030536689769523"><ele>257.0</ele><time>2026-03-31T09:18:24Z</time></trkpt><trkpt lat="42.06570785339963" lon="-1.6029240741120971"><ele>257.0</ele><time>2026-03-31T09:18:25Z</time></trkpt><trkpt lat="42.065777045718335" lon="-1.6027818958706417"><ele>257.0</ele><time>2026-03-31T09:18:26Z</time></trkpt><trkpt lat="42.0658445986153" lon="-1.6026397238374523"><ele>256.0</ele><time>2026-03-31T09:18:27Z</time></trkpt><trkpt lat="42.06590903135901" lon="-1.6024961526499932"><ele>255.0</ele><time>2026-03-31T09:18:28Z</time></trkpt><trkpt lat="42.065973492203106" lon="-1.6023505580222437"><ele>254.0</ele><time>2026-03-31T09:18:29Z</time></trkpt><trkpt lat="42.06603814280692" lon="-1.602205039306894"><ele>253.0</ele><time>2026-03-31T09:18:30Z</time></trkpt><trkpt lat="42.06610248175486" lon="-1.6020569564585363"><ele>253.5</ele><time>2026-03-31T09:18:31Z</time></trkpt><trkpt lat="42.066171036844054" lon="-1.6019084763231988"><ele>254.0</ele><time>2026-03-31T09:18:32Z</time></trkpt><trkpt lat="42.06623622563591" lon="-1.6017567429051736"><ele>254.5</ele><time>2026-03-31T09:18:33Z</time></trkpt><trkpt lat="42.066300886773654" lon="-1.6016045631194569"><ele>255.0</ele><time>2026-03-31T09:18:34Z</time></trkpt><trkpt lat="42.06637265470989" lon="-1.6014570689750953"><ele>255.0</ele><time>2026-03-31T09:18:35Z</time></trkpt><trkpt lat="42.06643799618494" lon="-1.6013027403472797"><ele>255.0</ele><time>2026-03-31T09:18:36Z</time></trkpt><trkpt lat="42.06650316436414" lon="-1.6011459050214545"><ele>255.0</ele><time>2026-03-31T09:18:37Z</time></trkpt><trkpt lat="42.06657125351312" lon="-1.6009917599290362"><ele>255.0</ele><time>2026-03-31T09:18:38Z</time></trkpt><trkpt lat="42.06664288551581" lon="-1.6008412537637038"><ele>255.2</ele><time>2026-03-31T09:18:39Z</time></trkpt><trkpt lat="42.066699011978265" lon="-1.6007004798695972"><ele>255.4</ele><time>2026-03-31T09:18:40Z</time></trkpt><trkpt lat="42.066752564436385" lon="-1.600564921256807"><ele>255.60000000000002</ele><time>2026-03-31T09:18:41Z</time></trkpt><trkpt lat="42.06680544525301" lon="-1.600442654063942"><ele>255.8</ele><time>2026-03-31T09:18:42Z</time></trkpt><trkpt lat="42.0668519101831" lon="-1.6003301461025805"><ele>256.0</ele><time>2026-03-31T09:18:43Z</time></trkpt><trkpt lat="42.06689615969312" lon="-1.6002262198898705"><ele>256.0</ele><time>2026-03-31T09:18:44Z</time></trkpt><trkpt lat="42.066930523185405" lon="-1.6001264266975013"><ele>255.99999999999997</ele><time>2026-03-31T09:18:45Z</time></trkpt><trkpt lat="42.06695766593559" lon="-1.6000317547671141"><ele>256.0</ele><time>2026-03-31T09:18:46Z</time></trkpt><trkpt lat="42.06698095028641" lon="-1.5999517689250822"><ele>256.0</ele><time>2026-03-31T09:18:47Z</time></trkpt><trkpt lat="42.06701427797001" lon="-1.5998602395760073"><ele>255.99999999999997</ele><time>2026-03-31T09:18:49Z</time></trkpt><trkpt lat="42.06707944233998" lon="-1.5998659321685154"><ele>256.0</ele><time>2026-03-31T09:19:54Z</time></trkpt><trkpt lat="42.067021253059714" lon="-1.5999434285095109"><ele>256.0</ele><time>2026-03-31T09:19:56Z</time></trkpt><trkpt lat="42.06696588673098" lon="-1.600066735639257"><ele>256.0</ele><time>2026-03-31T09:19:57Z</time></trkpt><trkpt lat="42.06695062284469" lon="-1.60021687702165"><ele>256.0</ele><time>2026-03-31T09:19:58Z</time></trkpt><trkpt lat="42.066903749948445" lon="-1.600333299768119"><ele>256.0</ele><time>2026-03-31T09:19:59Z</time></trkpt><trkpt lat="42.066859251061295" lon="-1.6004429272558514"><ele>256.0</ele><time>2026-03-31T09:20:00Z</time></trkpt><trkpt lat="42.066811576348385" lon="-1.6005466286143002"><ele>256.0</ele><time>2026-03-31T09:20:01Z</time></trkpt><trkpt lat="42.066758331002376" lon="-1.6006459825933383"><ele>256.0</ele><time>2026-03-31T09:20:02Z</time></trkpt><trkpt lat="42.06669901399604" lon="-1.6007587073764344"><ele>256.0</ele><time>2026-03-31T09:20:03Z</time></trkpt><trkpt lat="42.06664684037878" lon="-1.600864325073198"><ele>256.0</ele><time>2026-03-31T09:20:04Z</time></trkpt><trkpt lat="42.066595740523596" lon="-1.6009746688693023"><ele>256.0</ele><time>2026-03-31T09:20:05Z</time></trkpt><trkpt lat="42.06655641835333" lon="-1.601106610500327"><ele>256.0</ele><time>2026-03-31T09:20:06Z</time></trkpt><trkpt lat="42.066508779306346" lon="-1.6012325328884365"><ele>255.75</ele><time>2026-03-31T09:20:07Z</time></trkpt><trkpt lat="42.066447842739" lon="-1.6013636580820902"><ele>255.5</ele><time>2026-03-31T09:20:08Z</time></trkpt><trkpt lat="42.06638463989604" lon="-1.6015041345281325"><ele>255.25</ele><time>2026-03-31T09:20:09Z</time></trkpt><trkpt lat="42.06632028684414" lon="-1.601648769370466"><ele>255.0</ele><time>2026-03-31T09:20:10Z</time></trkpt><trkpt lat="42.06625918825954" lon="-1.6017935633463558"><ele>255.0</ele><time>2026-03-31T09:20:11Z</time></trkpt><trkpt lat="42.06619919675287" lon="-1.6019392132566588"><ele>255.0</ele><time>2026-03-31T09:20:12Z</time></trkpt><trkpt lat="42.0661368942417" lon="-1.6020848889038368"><ele>255.0</ele><time>2026-03-31T09:20:13Z</time></trkpt><trkpt lat="42.06607354128511" lon="-1.6022267302623046"><ele>255.0</ele><time>2026-03-31T09:20:14Z</time></trkpt><trkpt lat="42.06600838909875" lon="-1.602365643818523"><ele>254.5</ele><time>2026-03-31T09:20:15Z</time></trkpt><trkpt lat="42.06594327033771" lon="-1.6025091108980483"><ele>254.0</ele><time>2026-03-31T09:20:16Z</time></trkpt><trkpt lat="42.06587809238372" lon="-1.6026563830385059"><ele>253.5</ele><time>2026-03-31T09:20:17Z</time></trkpt><trkpt lat="42.065813866815" lon="-1.6027965191890652"><ele>253.0</ele><time>2026-03-31T09:20:18Z</time></trkpt><trkpt lat="42.06575393926346" lon="-1.6029215458072144"><ele>253.8</ele><time>2026-03-31T09:20:19Z</time></trkpt><trkpt lat="42.065694988010854" lon="-1.6030301380934107"><ele>254.60000000000002</ele><time>2026-03-31T09:20:20Z</time></trkpt><trkpt lat="42.06563534761881" lon="-1.6031396686432868"><ele>255.39999999999998</ele><time>2026-03-31T09:20:21Z</time></trkpt><trkpt lat="42.06557284265045" lon="-1.6032420516881056"><ele>256.2</ele><time>2026-03-31T09:20:22Z</time></trkpt><trkpt lat="42.06551659481974" lon="-1.6033304654104379"><ele>257.0</ele><time>2026-03-31T09:20:23Z</time></trkpt><trkpt lat="42.06546936500458" lon="-1.6033991661593459"><ele>257.0</ele><time>2026-03-31T09:20:24Z</time></trkpt><trkpt lat="42.065411127418514" lon="-1.6034837897130143"><ele>257.0</ele><time>2026-03-31T09:20:26Z</time></trkpt><trkpt lat="42.06545906131632" lon="-1.6035937314524633"><ele>257.0</ele><time>2026-03-31T09:20:30Z</time></trkpt><trkpt lat="42.06554874814268" lon="-1.6036512096155124"><ele>257.0</ele><time>2026-03-31T09:20:31Z</time></trkpt><trkpt lat="42.06565890087393" lon="-1.6036881800458607"><ele>257.0</ele><time>2026-03-31T09:20:32Z</time></trkpt><trkpt lat="42.065744598398396" lon="-1.603763888788563"><ele>258.1428571428571</ele><time>2026-03-31T09:20:33Z</time></trkpt><trkpt lat="42.065820571693756" lon="-1.6038031794019152"><ele>259.2857142857143</ele><time>2026-03-31T09:20:34Z</time></trkpt><trkpt lat="42.0658769883904" lon="-1.6038583264169144"><ele>260.42857142857144</ele><time>2026-03-31T09:20:35Z</time></trkpt><trkpt lat="42.06592954989042" lon="-1.6039104106545121"><ele>261.57142857142856</ele><time>2026-03-31T09:20:36Z</time></trkpt><trkpt lat="42.06598941880081" lon="-1.6039459304195287"><ele>262.7142857142857</ele><time>2026-03-31T09:20:37Z</time></trkpt><trkpt lat="42.06605472015061" lon="-1.6040164773002314"><ele>263.85714285714283</ele><time>2026-03-31T09:20:39Z</time></trkpt><trkpt lat="42.0659822142648" lon="-1.6040076672724495"><ele>265.0</ele><time>2026-03-31T09:20:45Z</time></trkpt><trkpt lat="42.06591979503706" lon="-1.6039464701765929"><ele>265.0</ele><time>2026-03-31T09:20:46Z</time></trkpt><trkpt lat="42.06583259675459" lon="-1.6038695533903902"><ele>265.0</ele><time>2026-03-31T09:20:47Z</time></trkpt><trkpt lat="42.06576742622164" lon="-1.603811929919627"><ele>265.0</ele><time>2026-03-31T09:20:48Z</time></trkpt><trkpt lat="42.0657141467033" lon="-1.6037645327446526"><ele>265.0</ele><time>2026-03-31T09:20:49Z</time></trkpt><trkpt lat="42.065610022541215" lon="-1.6036897996544366"><ele>265.0</ele><time>2026-03-31T09:20:51Z</time></trkpt><trkpt lat="42.065518695233365" lon="-1.6036616172177554"><ele>264.66666666666663</ele><time>2026-03-31T09:20:53Z</time></trkpt><trkpt lat="42.065420373839544" lon="-1.6035963915459879"><ele>264.3333333333333</ele><time>2026-03-31T09:21:01Z</time></trkpt><trkpt lat="42.06535700144138" lon="-1.603565494287603"><ele>264.0</ele><time>2026-03-31T09:21:03Z</time></trkpt><trkpt lat="42.06529148405723" lon="-1.6035424840294061"><ele>263.6666666666667</ele><time>2026-03-31T09:21:05Z</time></trkpt><trkpt lat="42.06523862737178" lon="-1.603678912337909"><ele>263.33333333333337</ele><time>2026-03-31T09:21:07Z</time></trkpt><trkpt lat="42.065226523601496" lon="-1.6037649556226592"><ele>263.0</ele><time>2026-03-31T09:21:13Z</time></trkpt><trkpt lat="42.065353182928035" lon="-1.60391638713985"><ele>263.0</ele><time>2026-03-31T09:21:16Z</time></trkpt><trkpt lat="42.06541255594921" lon="-1.6039630176961064"><ele>263.0</ele><time>2026-03-31T09:21:17Z</time></trkpt><trkpt lat="42.065505053473025" lon="-1.6040581248173642"><ele>263.0</ele><time>2026-03-31T09:21:19Z</time></trkpt><trkpt lat="42.065560391767725" lon="-1.6041098389357353"><ele>263.0</ele><time>2026-03-31T09:21:20Z</time></trkpt><trkpt lat="42.06561758322577" lon="-1.6041651170617264"><ele>263.0</ele><time>2026-03-31T09:21:21Z</time></trkpt><trkpt lat="42.06567344576258" lon="-1.6042181930573147"><ele>263.0</ele><time>2026-03-31T09:21:22Z</time></trkpt><trkpt lat="42.06572469153149" lon="-1.6042752984706405"><ele>263.0</ele><time>2026-03-31T09:21:23Z</time></trkpt><trkpt lat="42.065744393438266" lon="-1.6044353737551948"><ele>263.0</ele><time>2026-03-31T09:21:25Z</time></trkpt><trkpt lat="42.06571464898818" lon="-1.6045378943649369"><ele>263.0</ele><time>2026-03-31T09:21:26Z</time></trkpt><trkpt lat="42.06569085682369" lon="-1.6046423777167849"><ele>263.0</ele><time>2026-03-31T09:21:27Z</time></trkpt><trkpt lat="42.06568067964789" lon="-1.6047577461906715"><ele>263.0</ele><time>2026-03-31T09:21:28Z</time></trkpt><trkpt lat="42.06568435911911" lon="-1.6048838082931742"><ele>263.4</ele><time>2026-03-31T09:21:29Z</time></trkpt><trkpt lat="42.06569814737723" lon="-1.6050083783755809"><ele>263.8</ele><time>2026-03-31T09:21:30Z</time></trkpt><trkpt lat="42.06572140812603" lon="-1.605134073582388"><ele>264.2</ele><time>2026-03-31T09:21:31Z</time></trkpt><trkpt lat="42.06573854185241" lon="-1.605251814227326"><ele>264.6</ele><time>2026-03-31T09:21:32Z</time></trkpt><trkpt lat="42.06574348737693" lon="-1.6053755920997599"><ele>265.0</ele><time>2026-03-31T09:21:33Z</time></trkpt><trkpt lat="42.0657454994862" lon="-1.6055000356835807"><ele>265.66666666666663</ele><time>2026-03-31T09:21:34Z</time></trkpt><trkpt lat="42.065750994889875" lon="-1.6056269990112535"><ele>266.3333333333333</ele><time>2026-03-31T09:21:35Z</time></trkpt><trkpt lat="42.06575529450207" lon="-1.6057367889390333"><ele>267.0</ele><time>2026-03-31T09:21:36Z</time></trkpt><trkpt lat="42.06576310463022" lon="-1.605837485621386"><ele>267.6666666666667</ele><time>2026-03-31T09:21:37Z</time></trkpt><trkpt lat="42.06576816856396" lon="-1.605945732221639"><ele>268.33333333333337</ele><time>2026-03-31T09:21:38Z</time></trkpt><trkpt lat="42.06577404137084" lon="-1.606056143494851"><ele>269.0</ele><time>2026-03-31T09:21:39Z</time></trkpt><trkpt lat="42.06578028293008" lon="-1.606162208821127"><ele>270.57142857142856</ele><time>2026-03-31T09:21:40Z</time></trkpt><trkpt lat="42.06578507305006" lon="-1.6062619288283837"><ele>272.14285714285717</ele><time>2026-03-31T09:21:41Z</time></trkpt><trkpt lat="42.06578969239724" lon="-1.6063625546315474"><ele>273.7142857142857</ele><time>2026-03-31T09:21:42Z</time></trkpt><trkpt lat="42.06579536019034" lon="-1.60644760573465"><ele>275.2857142857143</ele><time>2026-03-31T09:21:43Z</time></trkpt><trkpt lat="42.065801474161375" lon="-1.606543116621781"><ele>276.8571428571429</ele><time>2026-03-31T09:21:44Z</time></trkpt><trkpt lat="42.06580880319113" lon="-1.606648338101414"><ele>278.42857142857144</ele><time>2026-03-31T09:21:45Z</time></trkpt><trkpt lat="42.065816710352884" lon="-1.6067588187630415"><ele>280.0</ele><time>2026-03-31T09:21:46Z</time></trkpt><trkpt lat="42.065821071482574" lon="-1.60687177361696"><ele>280.0</ele><time>2026-03-31T09:21:47Z</time></trkpt><trkpt lat="42.0658264794716" lon="-1.6069740895587372"><ele>280.0</ele><time>2026-03-31T09:21:48Z</time></trkpt><trkpt lat="42.065833442527996" lon="-1.607079084790189"><ele>280.0</ele><time>2026-03-31T09:21:49Z</time></trkpt><trkpt lat="42.06583967920642" lon="-1.6071782002154356"><ele>280.0</ele><time>2026-03-31T09:21:50Z</time></trkpt><trkpt lat="42.065845890779464" lon="-1.6072837958609425"><ele>280.0</ele><time>2026-03-31T09:21:51Z</time></trkpt><trkpt lat="42.0658487321258" lon="-1.6073888041912836"><ele>280.0</ele><time>2026-03-31T09:21:52Z</time></trkpt><trkpt lat="42.065853584194116" lon="-1.6074961956687006"><ele>280.0</ele><time>2026-03-31T09:21:53Z</time></trkpt><trkpt lat="42.065858617077026" lon="-1.607601499136868"><ele>280.0</ele><time>2026-03-31T09:21:54Z</time></trkpt><trkpt lat="42.0658659556912" lon="-1.6076996755245656"><ele>280.0</ele><time>2026-03-31T09:21:55Z</time></trkpt><trkpt lat="42.065871600355905" lon="-1.607796513693905"><ele>280.0</ele><time>2026-03-31T09:21:56Z</time></trkpt><trkpt lat="42.06587929580778" lon="-1.6078990941418696"><ele>280.0</ele><time>2026-03-31T09:21:57Z</time></trkpt><trkpt lat="42.06589087028573" lon="-1.6079973943817623"><ele>280.0</ele><time>2026-03-31T09:21:58Z</time></trkpt><trkpt lat="42.0659232653669" lon="-1.608155874261389"><ele>279.5</ele><time>2026-03-31T09:22:00Z</time></trkpt><trkpt lat="42.065982110449454" lon="-1.6082958683567898"><ele>279.0</ele><time>2026-03-31T09:22:02Z</time></trkpt><trkpt lat="42.06601213285355" lon="-1.6083728084697475"><ele>278.5</ele><time>2026-03-31T09:22:03Z</time></trkpt><trkpt lat="42.06606456331354" lon="-1.6085059395464898"><ele>278.0</ele><time>2026-03-31T09:22:05Z</time></trkpt><trkpt lat="42.06610073532845" lon="-1.608588680530994"><ele>277.5</ele><time>2026-03-31T09:22:07Z</time></trkpt><trkpt lat="42.066147186996986" lon="-1.6086482611229571"><ele>277.0</ele><time>2026-03-31T09:22:10Z</time></trkpt><trkpt lat="42.06619352686797" lon="-1.6087182654120409"><ele>276.5</ele><time>2026-03-31T09:22:15Z</time></trkpt><trkpt lat="42.06623466126071" lon="-1.6087936423612617"><ele>276.0</ele><time>2026-03-31T09:22:18Z</time></trkpt><trkpt lat="42.066278454636944" lon="-1.6088943651692438"><ele>275.5</ele><time>2026-03-31T09:22:20Z</time></trkpt><trkpt lat="42.06630245126338" lon="-1.6090356390114917"><ele>275.0</ele><time>2026-03-31T09:22:22Z</time></trkpt><trkpt lat="42.06630043274991" lon="-1.6091371778288905"><ele>274.5</ele><time>2026-03-31T09:22:23Z</time></trkpt><trkpt lat="42.06630254888474" lon="-1.609244590304073"><ele>274.0</ele><time>2026-03-31T09:22:24Z</time></trkpt><trkpt lat="42.06629856248158" lon="-1.609350371787645"><ele>274.0</ele><time>2026-03-31T09:22:25Z</time></trkpt><trkpt lat="42.06629588893039" lon="-1.6094573658879803"><ele>274.0</ele><time>2026-03-31T09:22:26Z</time></trkpt><trkpt lat="42.066288437842005" lon="-1.6095665069740046"><ele>274.0</ele><time>2026-03-31T09:22:27Z</time></trkpt><trkpt lat="42.066287755271404" lon="-1.6096770211766949"><ele>274.0</ele><time>2026-03-31T09:22:28Z</time></trkpt><trkpt lat="42.066281053194686" lon="-1.6098039614866744"><ele>274.0</ele><time>2026-03-31T09:22:29Z</time></trkpt><trkpt lat="42.066273903329815" lon="-1.609936699185304"><ele>274.0</ele><time>2026-03-31T09:22:30Z</time></trkpt><trkpt lat="42.06626571348018" lon="-1.61006865108407"><ele>274.0</ele><time>2026-03-31T09:22:31Z</time></trkpt><trkpt lat="42.066261481257364" lon="-1.610200840596655"><ele>274.0</ele><time>2026-03-31T09:22:32Z</time></trkpt><trkpt lat="42.06625645942765" lon="-1.6103290750586827"><ele>274.0</ele><time>2026-03-31T09:22:33Z</time></trkpt><trkpt lat="42.066250629945536" lon="-1.610452934711754"><ele>274.0</ele><time>2026-03-31T09:22:34Z</time></trkpt><trkpt lat="42.066245012189256" lon="-1.6105744560084847"><ele>274.0</ele><time>2026-03-31T09:22:35Z</time></trkpt><trkpt lat="42.06623701801527" lon="-1.6106885112789553"><ele>274.0</ele><time>2026-03-31T09:22:36Z</time></trkpt><trkpt lat="42.066228600196176" lon="-1.610790851386679"><ele>274.0</ele><time>2026-03-31T09:22:37Z</time></trkpt><trkpt lat="42.06621898389958" lon="-1.610895214810381"><ele>274.0</ele><time>2026-03-31T09:22:38Z</time></trkpt><trkpt lat="42.06619144061185" lon="-1.611008771775163"><ele>274.0</ele><time>2026-03-31T09:22:39Z</time></trkpt><trkpt lat="42.06614336149707" lon="-1.6111198354956735"><ele>274.0</ele><time>2026-03-31T09:22:40Z</time></trkpt><trkpt lat="42.0660816209105" lon="-1.6112096004678924"><ele>274.0</ele><time>2026-03-31T09:22:41Z</time></trkpt><trkpt lat="42.06601181741817" lon="-1.6112979188390537"><ele>274.66666666666663</ele><time>2026-03-31T09:22:42Z</time></trkpt><trkpt lat="42.06594806093066" lon="-1.6113825924378997"><ele>275.3333333333333</ele><time>2026-03-31T09:22:43Z</time></trkpt><trkpt lat="42.06588699125705" lon="-1.6114636939003988"><ele>276.0</ele><time>2026-03-31T09:22:44Z</time></trkpt><trkpt lat="42.06582881709013" lon="-1.6115359851343178"><ele>276.6666666666667</ele><time>2026-03-31T09:22:45Z</time></trkpt><trkpt lat="42.06576511371701" lon="-1.6116073151785675"><ele>277.33333333333337</ele><time>2026-03-31T09:22:46Z</time></trkpt><trkpt lat="42.065703563043094" lon="-1.6116845355675022"><ele>278.0</ele><time>2026-03-31T09:22:47Z</time></trkpt><trkpt lat="42.06565928830503" lon="-1.6117825199763376"><ele>277.0</ele><time>2026-03-31T09:22:48Z</time></trkpt><trkpt lat="42.065618511940116" lon="-1.6118913931453875"><ele>276.0</ele><time>2026-03-31T09:22:49Z</time></trkpt><trkpt lat="42.06557587511575" lon="-1.6120216315293237"><ele>275.0</ele><time>2026-03-31T09:22:50Z</time></trkpt><trkpt lat="42.06553318151718" lon="-1.6121621593348223"><ele>274.0</ele><time>2026-03-31T09:22:51Z</time></trkpt><trkpt lat="42.06549109628618" lon="-1.6122964161227504"><ele>273.0</ele><time>2026-03-31T09:22:52Z</time></trkpt><trkpt lat="42.06545342030855" lon="-1.6124160671607106"><ele>273.0</ele><time>2026-03-31T09:22:53Z</time></trkpt><trkpt lat="42.065419438577266" lon="-1.6125259678715602"><ele>273.0</ele><time>2026-03-31T09:22:54Z</time></trkpt><trkpt lat="42.065387454543355" lon="-1.6126312604110222"><ele>273.0</ele><time>2026-03-31T09:22:55Z</time></trkpt><trkpt lat="42.065354418508996" lon="-1.6127422110378673"><ele>273.0</ele><time>2026-03-31T09:22:56Z</time></trkpt><trkpt lat="42.06531763701644" lon="-1.612862847330226"><ele>273.0</ele><time>2026-03-31T09:22:57Z</time></trkpt><trkpt lat="42.06527764585259" lon="-1.6129991877928318"><ele>273.2</ele><time>2026-03-31T09:22:58Z</time></trkpt><trkpt lat="42.06523257034592" lon="-1.613136065566608"><ele>273.4</ele><time>2026-03-31T09:22:59Z</time></trkpt><trkpt lat="42.06518739496173" lon="-1.6132710617335435"><ele>273.59999999999997</ele><time>2026-03-31T09:23:00Z</time></trkpt><trkpt lat="42.06514767759076" lon="-1.6133891400504017"><ele>273.8</ele><time>2026-03-31T09:23:01Z</time></trkpt><trkpt lat="42.06509722800719" lon="-1.6135210381137013"><ele>274.0</ele><time>2026-03-31T09:23:02Z</time></trkpt><trkpt lat="42.065045838141536" lon="-1.6136479028363941"><ele>273.8333333333333</ele><time>2026-03-31T09:23:03Z</time></trkpt><trkpt lat="42.064992412734114" lon="-1.6137577359752668"><ele>273.66666666666663</ele><time>2026-03-31T09:23:04Z</time></trkpt><trkpt lat="42.06494235294915" lon="-1.6138509566143366"><ele>273.5</ele><time>2026-03-31T09:23:05Z</time></trkpt><trkpt lat="42.06489915486307" lon="-1.6139286617290824"><ele>273.3333333333333</ele><time>2026-03-31T09:23:06Z</time></trkpt><trkpt lat="42.06486049496404" lon="-1.613996933996808"><ele>273.1666666666667</ele><time>2026-03-31T09:23:07Z</time></trkpt><trkpt lat="42.06482362805283" lon="-1.6140979859213773"><ele>273.0</ele><time>2026-03-31T09:23:08Z</time></trkpt><trkpt lat="42.06475572041524" lon="-1.614213214846259"><ele>273.5</ele><time>2026-03-31T09:23:09Z</time></trkpt><trkpt lat="42.06470294696143" lon="-1.6143422177782958"><ele>274.0</ele><time>2026-03-31T09:23:10Z</time></trkpt><trkpt lat="42.06465239297951" lon="-1.6144464132622818"><ele>274.5</ele><time>2026-03-31T09:23:11Z</time></trkpt><trkpt lat="42.0646047375952" lon="-1.614538224962975"><ele>275.0</ele><time>2026-03-31T09:23:12Z</time></trkpt><trkpt lat="42.06456539416343" lon="-1.6146176167791733"><ele>275.5</ele><time>2026-03-31T09:23:13Z</time></trkpt><trkpt lat="42.06453581722704" lon="-1.6147089521242777"><ele>276.0</ele><time>2026-03-31T09:23:14Z</time></trkpt><trkpt lat="42.06451616841236" lon="-1.6148102412860699"><ele>276.0</ele><time>2026-03-31T09:23:15Z</time></trkpt><trkpt lat="42.06452863827351" lon="-1.6149175518892285"><ele>276.0</ele><time>2026-03-31T09:23:16Z</time></trkpt><trkpt lat="42.06457970570057" lon="-1.6150290142072468"><ele>276.0</ele><time>2026-03-31T09:23:17Z</time></trkpt><trkpt lat="42.064647760784894" lon="-1.6151418798120731"><ele>276.0</ele><time>2026-03-31T09:23:18Z</time></trkpt><trkpt lat="42.06471964744041" lon="-1.6152752348701862"><ele>276.0</ele><time>2026-03-31T09:23:19Z</time></trkpt><trkpt lat="42.06478570954516" lon="-1.6154156129165926"><ele>275.75</ele><time>2026-03-31T09:23:20Z</time></trkpt><trkpt lat="42.064855449810786" lon="-1.6155623407825952"><ele>275.5</ele><time>2026-03-31T09:23:21Z</time></trkpt><trkpt lat="42.06492766930049" lon="-1.6157098974999768"><ele>275.25</ele><time>2026-03-31T09:23:22Z</time></trkpt><trkpt lat="42.06500113031141" lon="-1.61585525211419"><ele>275.0</ele><time>2026-03-31T09:23:23Z</time></trkpt><trkpt lat="42.065071219274216" lon="-1.616001190322569"><ele>274.75</ele><time>2026-03-31T09:23:24Z</time></trkpt><trkpt lat="42.065139108936215" lon="-1.616139073019714"><ele>274.5</ele><time>2026-03-31T09:23:25Z</time></trkpt><trkpt lat="42.06520973991033" lon="-1.616273782288948"><ele>274.25</ele><time>2026-03-31T09:23:26Z</time></trkpt><trkpt lat="42.06527780239046" lon="-1.616407701433433"><ele>274.0</ele><time>2026-03-31T09:23:27Z</time></trkpt><trkpt lat="42.06534791228467" lon="-1.6165477003365314"><ele>274.0</ele><time>2026-03-31T09:23:28Z</time></trkpt><trkpt lat="42.06542073691287" lon="-1.6166948864805413"><ele>274.0</ele><time>2026-03-31T09:23:29Z</time></trkpt><trkpt lat="42.065489791953" lon="-1.6168353053456321"><ele>274.0</ele><time>2026-03-31T09:23:30Z</time></trkpt><trkpt lat="42.06555227769916" lon="-1.6169779334432928"><ele>274.0</ele><time>2026-03-31T09:23:31Z</time></trkpt><trkpt lat="42.06561465134671" lon="-1.6171225874762458"><ele>275.0</ele><time>2026-03-31T09:23:32Z</time></trkpt><trkpt lat="42.06567623236406" lon="-1.61726105196913"><ele>276.0</ele><time>2026-03-31T09:23:33Z</time></trkpt><trkpt lat="42.06574153679845" lon="-1.6173879917857283"><ele>277.0</ele><time>2026-03-31T09:23:34Z</time></trkpt><trkpt lat="42.06580310676076" lon="-1.6175119807734193"><ele>278.0</ele><time>2026-03-31T09:23:35Z</time></trkpt><trkpt lat="42.06586303125255" lon="-1.6176278948729212"><ele>278.0</ele><time>2026-03-31T09:23:36Z</time></trkpt><trkpt lat="42.06592229719853" lon="-1.6177398228004205"><ele>278.0</ele><time>2026-03-31T09:23:37Z</time></trkpt><trkpt lat="42.065968852183495" lon="-1.617831482637048"><ele>278.0</ele><time>2026-03-31T09:23:38Z</time></trkpt><trkpt lat="42.06603322109307" lon="-1.6178946808889023"><ele>278.0</ele><time>2026-03-31T09:23:39Z</time></trkpt><trkpt lat="42.06609944428541" lon="-1.617925223182015"><ele>278.0</ele><time>2026-03-31T09:23:40Z</time></trkpt><trkpt lat="42.06616099975662" lon="-1.617955603989125"><ele>278.0</ele><time>2026-03-31T09:23:41Z</time></trkpt><trkpt lat="42.06622907689403" lon="-1.6180093160861335"><ele>278.0</ele><time>2026-03-31T09:23:43Z</time></trkpt><trkpt lat="42.06630586893026" lon="-1.6178443345876963"><ele>278.0</ele><time>2026-03-31T09:23:44Z</time></trkpt><trkpt lat="42.06637889666521" lon="-1.6177641109296206"><ele>278.0</ele><time>2026-03-31T09:23:46Z</time></trkpt><trkpt lat="42.06645197526777" lon="-1.6178179910357362"><ele>278.0</ele><time>2026-03-31T09:23:48Z</time></trkpt><trkpt lat="42.066414828336754" lon="-1.6178958028380717"><ele>278.0</ele><time>2026-03-31T09:23:50Z</time></trkpt><trkpt lat="42.06630693229868" lon="-1.6179787085097077"><ele>279.8</ele><time>2026-03-31T09:30:12Z</time></trkpt><trkpt lat="42.066243969922574" lon="-1.6179245888912672"><ele>281.6</ele><time>2026-03-31T09:30:17Z</time></trkpt><trkpt lat="42.06617191619957" lon="-1.617934053373002"><ele>283.4</ele><time>2026-03-31T09:31:44Z</time></trkpt><trkpt lat="42.066202296137085" lon="-1.6180363879846487"><ele>285.2</ele><time>2026-03-31T09:31:49Z</time></trkpt><trkpt lat="42.066381731599805" lon="-1.6181202508247259"><ele>287.0</ele><time>2026-03-31T09:31:51Z</time></trkpt><trkpt lat="42.066452043060615" lon="-1.6181686768745538"><ele>287.0</ele><time>2026-03-31T09:31:52Z</time></trkpt><trkpt lat="42.06651905359664" lon="-1.6182192048600075"><ele>287.0</ele><time>2026-03-31T09:31:53Z</time></trkpt><trkpt lat="42.066578202322106" lon="-1.618281024123576"><ele>287.0</ele><time>2026-03-31T09:31:54Z</time></trkpt><trkpt lat="42.06663606828983" lon="-1.618337012276889"><ele>287.0</ele><time>2026-03-31T09:31:55Z</time></trkpt><trkpt lat="42.066704797723666" lon="-1.6183939149802224"><ele>287.0</ele><time>2026-03-31T09:31:57Z</time></trkpt><trkpt lat="42.066644071615634" lon="-1.6184693348749313"><ele>287.0</ele><time>2026-03-31T09:31:59Z</time></trkpt><trkpt lat="42.06661897064738" lon="-1.6185529211847638"><ele>287.0</ele><time>2026-03-31T09:32:00Z</time></trkpt><trkpt lat="42.066602490956654" lon="-1.6186449909627116"><ele>287.0</ele><time>2026-03-31T09:32:01Z</time></trkpt><trkpt lat="42.066569543555545" lon="-1.6187475244537355"><ele>287.0</ele><time>2026-03-31T09:32:02Z</time></trkpt><trkpt lat="42.06650155110873" lon="-1.6188372694889175"><ele>287.0</ele><time>2026-03-31T09:32:03Z</time></trkpt><trkpt lat="42.066413202201225" lon="-1.6189137453765818"><ele>287.0</ele><time>2026-03-31T09:32:04Z</time></trkpt><trkpt lat="42.066291312871314" lon="-1.6189064276357268"><ele>287.5</ele><time>2026-03-31T09:32:05Z</time></trkpt><trkpt lat="42.066183382396524" lon="-1.6189190996648313"><ele>288.0</ele><time>2026-03-31T09:32:06Z</time></trkpt><trkpt lat="42.06607604775912" lon="-1.618967121544152"><ele>288.5</ele><time>2026-03-31T09:32:07Z</time></trkpt><trkpt lat="42.06597208955695" lon="-1.6190410139197737"><ele>289.0</ele><time>2026-03-31T09:32:08Z</time></trkpt><trkpt lat="42.065860976999716" lon="-1.6191040776237526"><ele>288.25</ele><time>2026-03-31T09:32:09Z</time></trkpt><trkpt lat="42.065748097751914" lon="-1.6191464337366945"><ele>287.5</ele><time>2026-03-31T09:32:10Z</time></trkpt><trkpt lat="42.06563555972532" lon="-1.6191776762696242"><ele>286.75</ele><time>2026-03-31T09:32:11Z</time></trkpt><trkpt lat="42.065519173196876" lon="-1.6191892573113973"><ele>286.0</ele><time>2026-03-31T09:32:12Z</time></trkpt><trkpt lat="42.06540348644034" lon="-1.6191834232060787"><ele>286.0</ele><time>2026-03-31T09:32:13Z</time></trkpt><trkpt lat="42.06528254959672" lon="-1.6191670231438444"><ele>286.0</ele><time>2026-03-31T09:32:14Z</time></trkpt><trkpt lat="42.06516106827798" lon="-1.6191360521356748"><ele>286.0</ele><time>2026-03-31T09:32:15Z</time></trkpt><trkpt lat="42.065041165898855" lon="-1.619095779087223"><ele>286.0</ele><time>2026-03-31T09:32:16Z</time></trkpt><trkpt lat="42.06492785931294" lon="-1.6190379852364998"><ele>284.5</ele><time>2026-03-31T09:32:17Z</time></trkpt><trkpt lat="42.064819936862826" lon="-1.6189651665519693"><ele>283.0</ele><time>2026-03-31T09:32:18Z</time></trkpt><trkpt lat="42.064710785981426" lon="-1.6188782731442242"><ele>281.5</ele><time>2026-03-31T09:32:19Z</time></trkpt><trkpt lat="42.06460101266245" lon="-1.6187900124861199"><ele>280.0</ele><time>2026-03-31T09:32:20Z</time></trkpt><trkpt lat="42.06449135209089" lon="-1.6187024796920797"><ele>279.25</ele><time>2026-03-31T09:32:21Z</time></trkpt><trkpt lat="42.06438039287499" lon="-1.6186193669866482"><ele>278.5</ele><time>2026-03-31T09:32:22Z</time></trkpt><trkpt lat="42.0642716744593" lon="-1.6185390451531727"><ele>277.75</ele><time>2026-03-31T09:32:23Z</time></trkpt><trkpt lat="42.06416218899995" lon="-1.6184578730872616"><ele>277.0</ele><time>2026-03-31T09:32:24Z</time></trkpt><trkpt lat="42.06405833312796" lon="-1.618377423182662"><ele>277.0</ele><time>2026-03-31T09:32:25Z</time></trkpt><trkpt lat="42.063954155915575" lon="-1.6182970728279846"><ele>277.0</ele><time>2026-03-31T09:32:26Z</time></trkpt><trkpt lat="42.06385264091612" lon="-1.6182273251697705"><ele>277.0</ele><time>2026-03-31T09:32:27Z</time></trkpt><trkpt lat="42.06374898805224" lon="-1.6181554945684105"><ele>277.0</ele><time>2026-03-31T09:32:28Z</time></trkpt><trkpt lat="42.063646493313435" lon="-1.61808330881158"><ele>277.0</ele><time>2026-03-31T09:32:29Z</time></trkpt><trkpt lat="42.06354992986548" lon="-1.6180159516035144"><ele>277.0</ele><time>2026-03-31T09:32:30Z</time></trkpt><trkpt lat="42.063458221783854" lon="-1.6179522292655129"><ele>277.0</ele><time>2026-03-31T09:32:31Z</time></trkpt><trkpt lat="42.06337162935358" lon="-1.6178920996656923"><ele>277.0</ele><time>2026-03-31T09:32:32Z</time></trkpt><trkpt lat="42.06329172454921" lon="-1.6178362332524783"><ele>277.0</ele><time>2026-03-31T09:32:33Z</time></trkpt><trkpt lat="42.063210313372174" lon="-1.617798881304351"><ele>276.66666666666663</ele><time>2026-03-31T09:32:34Z</time></trkpt><trkpt lat="42.063131843986305" lon="-1.6177974211094917"><ele>276.3333333333333</ele><time>2026-03-31T09:32:35Z</time></trkpt><trkpt lat="42.0630510699049" lon="-1.6178045451042082"><ele>276.0</ele><time>2026-03-31T09:32:36Z</time></trkpt><trkpt lat="42.062983316527124" lon="-1.6177777254352936"><ele>275.6666666666667</ele><time>2026-03-31T09:32:37Z</time></trkpt><trkpt lat="42.06292798840978" lon="-1.6176959176042651"><ele>275.33333333333337</ele><time>2026-03-31T09:32:38Z</time></trkpt><trkpt lat="42.06287374028652" lon="-1.6175916389283835"><ele>275.0</ele><time>2026-03-31T09:32:39Z</time></trkpt><trkpt lat="42.06292293134734" lon="-1.6174319155615817"><ele>275.0</ele><time>2026-03-31T09:32:40Z</time></trkpt><trkpt lat="42.063011676818014" lon="-1.617330107735393"><ele>275.0</ele><time>2026-03-31T09:32:41Z</time></trkpt><trkpt lat="42.06308728660344" lon="-1.61722464766792"><ele>275.0</ele><time>2026-03-31T09:32:42Z</time></trkpt><trkpt lat="42.06314854407754" lon="-1.617103043456665"><ele>275.0</ele><time>2026-03-31T09:32:43Z</time></trkpt><trkpt lat="42.06319143633674" lon="-1.6169612110976266"><ele>275.0</ele><time>2026-03-31T09:32:44Z</time></trkpt><trkpt lat="42.063222762668076" lon="-1.6168089643753594"><ele>275.0</ele><time>2026-03-31T09:32:45Z</time></trkpt><trkpt lat="42.06325847518946" lon="-1.616660314896123"><ele>275.0</ele><time>2026-03-31T09:32:46Z</time></trkpt><trkpt lat="42.06331005978486" lon="-1.616522955303386"><ele>275.0</ele><time>2026-03-31T09:32:47Z</time></trkpt><trkpt lat="42.06338021298714" lon="-1.616402264195392"><ele>275.0</ele><time>2026-03-31T09:32:48Z</time></trkpt><trkpt lat="42.06345109935309" lon="-1.6162839966838416"><ele>275.0</ele><time>2026-03-31T09:32:49Z</time></trkpt><trkpt lat="42.06351164548775" lon="-1.6161679781815186"><ele>275.0</ele><time>2026-03-31T09:32:50Z</time></trkpt><trkpt lat="42.06356819842645" lon="-1.6160604646270702"><ele>275.0</ele><time>2026-03-31T09:32:51Z</time></trkpt><trkpt lat="42.06362581414896" lon="-1.615953594041525"><ele>275.0</ele><time>2026-03-31T09:32:52Z</time></trkpt><trkpt lat="42.06367581752576" lon="-1.6158455995731296"><ele>275.0</ele><time>2026-03-31T09:32:53Z</time></trkpt><trkpt lat="42.06372243514696" lon="-1.6157490613209833"><ele>275.1666666666667</ele><time>2026-03-31T09:32:54Z</time></trkpt><trkpt lat="42.06377771177129" lon="-1.6156695742404459"><ele>275.33333333333337</ele><time>2026-03-31T09:32:55Z</time></trkpt><trkpt lat="42.06384145161669" lon="-1.6155934534239174"><ele>275.5</ele><time>2026-03-31T09:32:56Z</time></trkpt><trkpt lat="42.063896782455814" lon="-1.6155176246809533"><ele>275.6666666666667</ele><time>2026-03-31T09:32:57Z</time></trkpt><trkpt lat="42.06396076964253" lon="-1.6154246216024255"><ele>275.8333333333333</ele><time>2026-03-31T09:32:58Z</time></trkpt><trkpt lat="42.06402154881435" lon="-1.615326122238205"><ele>276.0</ele><time>2026-03-31T09:32:59Z</time></trkpt><trkpt lat="42.06407692457042" lon="-1.6152387454889607"><ele>276.0</ele><time>2026-03-31T09:33:00Z</time></trkpt><trkpt lat="42.06412770484249" lon="-1.6151619874155827"><ele>276.0</ele><time>2026-03-31T09:33:01Z</time></trkpt><trkpt lat="42.06417575515439" lon="-1.61508553493177"><ele>276.0</ele><time>2026-03-31T09:33:02Z</time></trkpt><trkpt lat="42.06422127043498" lon="-1.6150156867263474"><ele>276.0</ele><time>2026-03-31T09:33:03Z</time></trkpt><trkpt lat="42.06426544497904" lon="-1.614946774756618"><ele>276.0</ele><time>2026-03-31T09:33:04Z</time></trkpt><trkpt lat="42.06430642493544" lon="-1.6148768706531074"><ele>276.0</ele><time>2026-03-31T09:33:05Z</time></trkpt><trkpt lat="42.064343533124564" lon="-1.614735501499007"><ele>276.0</ele><time>2026-03-31T09:33:07Z</time></trkpt><trkpt lat="42.06435040757527" lon="-1.6146280057998068"><ele>276.0</ele><time>2026-03-31T09:33:09Z</time></trkpt><trkpt lat="42.06433941293335" lon="-1.61450333750152"><ele>276.0</ele><time>2026-03-31T09:33:11Z</time></trkpt><trkpt lat="42.06428631780073" lon="-1.6143952888805808"><ele>276.0</ele><time>2026-03-31T09:33:13Z</time></trkpt><trkpt lat="42.06421884365533" lon="-1.6142492218756503"><ele>276.0</ele><time>2026-03-31T09:33:15Z</time></trkpt><trkpt lat="42.064183949905015" lon="-1.6141780509267751"><ele>276.0</ele><time>2026-03-31T09:33:16Z</time></trkpt><trkpt lat="42.064148820384176" lon="-1.6141056046607776"><ele>276.0</ele><time>2026-03-31T09:33:17Z</time></trkpt><trkpt lat="42.06411052075745" lon="-1.614028708703811"><ele>276.0</ele><time>2026-03-31T09:33:18Z</time></trkpt><trkpt lat="42.06405673799624" lon="-1.6139207909197875"><ele>276.0</ele><time>2026-03-31T09:33:19Z</time></trkpt><trkpt lat="42.0639961320927" lon="-1.6138019762337072"><ele>276.0</ele><time>2026-03-31T09:33:20Z</time></trkpt><trkpt lat="42.063949500773546" lon="-1.6137105662778801"><ele>276.0</ele><time>2026-03-31T09:33:21Z</time></trkpt><trkpt lat="42.06390184051286" lon="-1.6136168672699924"><ele>275.6</ele><time>2026-03-31T09:33:22Z</time></trkpt><trkpt lat="42.06382837018884" lon="-1.6134718264809134"><ele>275.20000000000005</ele><time>2026-03-31T09:33:24Z</time></trkpt><trkpt lat="42.06378002684369" lon="-1.613373177712768"><ele>274.79999999999995</ele><time>2026-03-31T09:33:25Z</time></trkpt><trkpt lat="42.06372647082288" lon="-1.61326274735806"><ele>274.4</ele><time>2026-03-31T09:33:26Z</time></trkpt><trkpt lat="42.063657110290706" lon="-1.6131174589439472"><ele>274.0</ele><time>2026-03-31T09:33:27Z</time></trkpt><trkpt lat="42.06359493470023" lon="-1.6129862612284522"><ele>274.0</ele><time>2026-03-31T09:33:28Z</time></trkpt><trkpt lat="42.06353385312165" lon="-1.6128564952722677"><ele>274.0</ele><time>2026-03-31T09:33:29Z</time></trkpt><trkpt lat="42.06347826791196" lon="-1.6127385355704846"><ele>274.0</ele><time>2026-03-31T09:33:30Z</time></trkpt><trkpt lat="42.06342718266862" lon="-1.6126284457691151"><ele>274.0</ele><time>2026-03-31T09:33:31Z</time></trkpt><trkpt lat="42.0633795883685" lon="-1.612525542820675"><ele>274.0</ele><time>2026-03-31T09:33:32Z</time></trkpt><trkpt lat="42.06333529038015" lon="-1.6124321571615943"><ele>274.0</ele><time>2026-03-31T09:33:33Z</time></trkpt><trkpt lat="42.063293836877286" lon="-1.6123431757888471"><ele>274.0</ele><time>2026-03-31T09:33:34Z</time></trkpt><trkpt lat="42.063245595671674" lon="-1.6122405548894936"><ele>274.0</ele><time>2026-03-31T09:33:35Z</time></trkpt><trkpt lat="42.063204248682155" lon="-1.6121506684033164"><ele>274.0</ele><time>2026-03-31T09:33:36Z</time></trkpt><trkpt lat="42.06316713416716" lon="-1.6120718957884754"><ele>274.0</ele><time>2026-03-31T09:33:37Z</time></trkpt><trkpt lat="42.06312798964496" lon="-1.6119884956664232"><ele>274.0</ele><time>2026-03-31T09:33:38Z</time></trkpt><trkpt lat="42.06309265068037" lon="-1.611912476658585"><ele>274.0</ele><time>2026-03-31T09:33:39Z</time></trkpt><trkpt lat="42.06305822764568" lon="-1.6118384279394684"><ele>274.0</ele><time>2026-03-31T09:33:40Z</time></trkpt><trkpt lat="42.06299922294133" lon="-1.6117131018111626"><ele>274.0</ele><time>2026-03-31T09:33:42Z</time></trkpt><trkpt lat="42.06294020030089" lon="-1.611590863299779"><ele>274.0</ele><time>2026-03-31T09:33:44Z</time></trkpt><trkpt lat="42.06288169768643" lon="-1.611473990135013"><ele>274.0</ele><time>2026-03-31T09:33:46Z</time></trkpt><trkpt lat="42.06284565319838" lon="-1.611395611695902"><ele>274.0</ele><time>2026-03-31T09:33:48Z</time></trkpt><trkpt lat="42.06279558378239" lon="-1.6112918462088102"><ele>274.0</ele><time>2026-03-31T09:33:58Z</time></trkpt><trkpt lat="42.06274763702226" lon="-1.6112246305331188"><ele>274.0</ele><time>2026-03-31T09:33:59Z</time></trkpt><trkpt lat="42.06267029895594" lon="-1.61116562173167"><ele>274.0</ele><time>2026-03-31T09:34:00Z</time></trkpt><trkpt lat="42.06257739052074" lon="-1.6110860260609756"><ele>274.0</ele><time>2026-03-31T09:34:01Z</time></trkpt><trkpt lat="42.06248496831801" lon="-1.6110385455085523"><ele>272.59999999999997</ele><time>2026-03-31T09:34:02Z</time></trkpt><trkpt lat="42.06238672337728" lon="-1.6110141939391793"><ele>271.2</ele><time>2026-03-31T09:34:03Z</time></trkpt><trkpt lat="42.0622921746374" lon="-1.6109883804855203"><ele>269.79999999999995</ele><time>2026-03-31T09:34:04Z</time></trkpt><trkpt lat="42.06218880536156" lon="-1.6109900014683325"><ele>268.4</ele><time>2026-03-31T09:34:05Z</time></trkpt><trkpt lat="42.062093456789476" lon="-1.6110105538613395"><ele>267.0</ele><time>2026-03-31T09:34:06Z</time></trkpt><trkpt lat="42.06199703642777" lon="-1.6110429329138898"><ele>267.0</ele><time>2026-03-31T09:34:07Z</time></trkpt><trkpt lat="42.06190286077797" lon="-1.6110716767725208"><ele>267.0</ele><time>2026-03-31T09:34:08Z</time></trkpt><trkpt lat="42.061806892243666" lon="-1.6110995186998487"><ele>267.0</ele><time>2026-03-31T09:34:09Z</time></trkpt><trkpt lat="42.06171304598443" lon="-1.6111223665700232"><ele>267.0</ele><time>2026-03-31T09:34:10Z</time></trkpt><trkpt lat="42.06162025431263" lon="-1.611156856405018"><ele>267.0</ele><time>2026-03-31T09:34:11Z</time></trkpt><trkpt lat="42.06151738783534" lon="-1.6111671427108303"><ele>267.4</ele><time>2026-03-31T09:34:12Z</time></trkpt><trkpt lat="42.06142351006473" lon="-1.611158525342387"><ele>267.79999999999995</ele><time>2026-03-31T09:34:13Z</time></trkpt><trkpt lat="42.06132867153248" lon="-1.6111275962257605"><ele>268.2</ele><time>2026-03-31T09:34:14Z</time></trkpt><trkpt lat="42.06123750836666" lon="-1.6111209986773047"><ele>268.59999999999997</ele><time>2026-03-31T09:34:15Z</time></trkpt><trkpt lat="42.061155195356434" lon="-1.6110477835025125"><ele>269.0</ele><time>2026-03-31T09:34:16Z</time></trkpt><trkpt lat="42.061080256888246" lon="-1.6109924408065683"><ele>269.0</ele><time>2026-03-31T09:34:17Z</time></trkpt><trkpt lat="42.06099276570739" lon="-1.6109576179318652"><ele>269.0</ele><time>2026-03-31T09:34:18Z</time></trkpt><trkpt lat="42.06090094349865" lon="-1.6109037601999057"><ele>269.0</ele><time>2026-03-31T09:34:19Z</time></trkpt><trkpt lat="42.06080673749994" lon="-1.6108494712440793"><ele>269.0</ele><time>2026-03-31T09:34:20Z</time></trkpt><trkpt lat="42.06072185141684" lon="-1.6107783819542243"><ele>269.0</ele><time>2026-03-31T09:34:21Z</time></trkpt><trkpt lat="42.0606406284509" lon="-1.610677908149957"><ele>269.33333333333337</ele><time>2026-03-31T09:34:22Z</time></trkpt><trkpt lat="42.06056274806989" lon="-1.6105814752806356"><ele>269.6666666666667</ele><time>2026-03-31T09:34:23Z</time></trkpt><trkpt lat="42.060500047514715" lon="-1.6105008443720013"><ele>270.0</ele><time>2026-03-31T09:34:24Z</time></trkpt><trkpt lat="42.0604347296367" lon="-1.6104202692337486"><ele>270.3333333333333</ele><time>2026-03-31T09:34:25Z</time></trkpt><trkpt lat="42.0603749209721" lon="-1.6103469357901978"><ele>270.66666666666663</ele><time>2026-03-31T09:34:26Z</time></trkpt><trkpt lat="42.06032077858799" lon="-1.6102805969538447"><ele>271.0</ele><time>2026-03-31T09:34:27Z</time></trkpt><trkpt lat="42.060278333321655" lon="-1.6102004529023353"><ele>271.5</ele><time>2026-03-31T09:34:28Z</time></trkpt><trkpt lat="42.0602189234565" lon="-1.6101496303281853"><ele>272.0</ele><time>2026-03-31T09:34:29Z</time></trkpt><trkpt lat="42.06015174935191" lon="-1.6100983098525916"><ele>272.5</ele><time>2026-03-31T09:34:30Z</time></trkpt><trkpt lat="42.06004982592844" lon="-1.6101357147336552"><ele>273.0</ele><time>2026-03-31T09:34:32Z</time></trkpt><trkpt lat="42.06001320425403" lon="-1.6100324883063195"><ele>273.5</ele><time>2026-03-31T09:34:34Z</time></trkpt><trkpt lat="42.060017601932934" lon="-1.6099231237673886"><ele>274.0</ele><time>2026-03-31T09:34:36Z</time></trkpt><trkpt lat="42.060023599500845" lon="-1.6098181665540174"><ele>274.0</ele><time>2026-03-31T09:34:38Z</time></trkpt><trkpt lat="42.06003431568867" lon="-1.609726734935771"><ele>274.0</ele><time>2026-03-31T09:34:40Z</time></trkpt><trkpt lat="42.06000760717413" lon="-1.6095900896657076"><ele>274.0</ele><time>2026-03-31T09:34:42Z</time></trkpt><trkpt lat="42.05997893135076" lon="-1.6094417097488907"><ele>274.0</ele><time>2026-03-31T09:34:44Z</time></trkpt><trkpt lat="42.05996311989143" lon="-1.6093502501694414"><ele>274.0</ele><time>2026-03-31T09:34:45Z</time></trkpt><trkpt lat="42.05994901057713" lon="-1.6092638140201454"><ele>274.0</ele><time>2026-03-31T09:34:46Z</time></trkpt><trkpt lat="42.05993507675901" lon="-1.6091707946543776"><ele>274.0</ele><time>2026-03-31T09:34:47Z</time></trkpt><trkpt lat="42.05992071526035" lon="-1.6090749201892354"><ele>274.0</ele><time>2026-03-31T09:34:48Z</time></trkpt><trkpt lat="42.05990540602569" lon="-1.6089706754196835"><ele>274.0</ele><time>2026-03-31T09:34:49Z</time></trkpt><trkpt lat="42.05989151077567" lon="-1.6088725209726742"><ele>274.0</ele><time>2026-03-31T09:34:50Z</time></trkpt><trkpt lat="42.059892370898076" lon="-1.60876455372046"><ele>274.0</ele><time>2026-03-31T09:34:51Z</time></trkpt><trkpt lat="42.05987799700013" lon="-1.6086617352113364"><ele>274.0</ele><time>2026-03-31T09:34:52Z</time></trkpt><trkpt lat="42.05986449490304" lon="-1.6085710309556476"><ele>274.0</ele><time>2026-03-31T09:34:53Z</time></trkpt><trkpt lat="42.059850762996135" lon="-1.608481153021929"><ele>274.0</ele><time>2026-03-31T09:34:54Z</time></trkpt><trkpt lat="42.05983531205295" lon="-1.6083860312461833"><ele>274.0</ele><time>2026-03-31T09:34:55Z</time></trkpt><trkpt lat="42.05981839759503" lon="-1.6082865593462736"><ele>274.0</ele><time>2026-03-31T09:34:56Z</time></trkpt><trkpt lat="42.059806324440636" lon="-1.6081959702611628"><ele>274.0</ele><time>2026-03-31T09:34:57Z</time></trkpt><trkpt lat="42.05977713143579" lon="-1.6080471332057313"><ele>274.0</ele><time>2026-03-31T09:34:59Z</time></trkpt><trkpt lat="42.059758134913935" lon="-1.6079137200061278"><ele>275.4</ele><time>2026-03-31T09:35:01Z</time></trkpt><trkpt lat="42.05970510937153" lon="-1.6077959210144734"><ele>276.79999999999995</ele><time>2026-03-31T09:35:03Z</time></trkpt><trkpt lat="42.059609667241766" lon="-1.6076808548296173"><ele>278.20000000000005</ele><time>2026-03-31T09:35:05Z</time></trkpt><trkpt lat="42.05951477933499" lon="-1.6076466069606874"><ele>279.6</ele><time>2026-03-31T09:35:07Z</time></trkpt><trkpt lat="42.05942961941611" lon="-1.6076062594786846"><ele>281.0</ele><time>2026-03-31T09:35:09Z</time></trkpt><trkpt lat="42.05939746389613" lon="-1.6075249855113305"><ele>281.0</ele><time>2026-03-31T09:35:11Z</time></trkpt><trkpt lat="42.05947010689604" lon="-1.6073938671767023"><ele>281.0</ele><time>2026-03-31T09:35:13Z</time></trkpt><trkpt lat="42.059505462400686" lon="-1.6073214079065719"><ele>281.0</ele><time>2026-03-31T09:35:14Z</time></trkpt><trkpt lat="42.05952839052524" lon="-1.6071994521817206"><ele>281.0</ele><time>2026-03-31T09:35:16Z</time></trkpt><trkpt lat="42.05954951766127" lon="-1.6070700884932922"><ele>281.0</ele><time>2026-03-31T09:35:18Z</time></trkpt><trkpt lat="42.059572333496476" lon="-1.6069007823394124"><ele>281.83333333333337</ele><time>2026-03-31T09:35:21Z</time></trkpt><trkpt lat="42.059597357424906" lon="-1.606809769474065"><ele>282.6666666666667</ele><time>2026-03-31T09:35:23Z</time></trkpt><trkpt lat="42.05961214215871" lon="-1.6067080819235566"><ele>283.5</ele><time>2026-03-31T09:35:25Z</time></trkpt><trkpt lat="42.05962279503467" lon="-1.606614529759876"><ele>284.3333333333333</ele><time>2026-03-31T09:35:28Z</time></trkpt><trkpt lat="42.059636683864035" lon="-1.6065170023390336"><ele>285.16666666666663</ele><time>2026-03-31T09:35:29Z</time></trkpt><trkpt lat="42.05964628654071" lon="-1.6064256689476781"><ele>286.0</ele><time>2026-03-31T09:35:30Z</time></trkpt><trkpt lat="42.05967101459416" lon="-1.6062663216467756"><ele>285.8333333333333</ele><time>2026-03-31T09:35:32Z</time></trkpt><trkpt lat="42.059676858413866" lon="-1.6061098737409463"><ele>285.66666666666663</ele><time>2026-03-31T09:35:34Z</time></trkpt><trkpt lat="42.05968820299768" lon="-1.606024696873533"><ele>285.5</ele><time>2026-03-31T09:35:35Z</time></trkpt><trkpt lat="42.05970186150732" lon="-1.6059221467076923"><ele>285.3333333333333</ele><time>2026-03-31T09:35:36Z</time></trkpt><trkpt lat="42.059716017702925" lon="-1.6058242817712756"><ele>285.1666666666667</ele><time>2026-03-31T09:35:37Z</time></trkpt><trkpt lat="42.05974561675031" lon="-1.6057320321512778"><ele>285.0</ele><time>2026-03-31T09:35:38Z</time></trkpt><trkpt lat="42.059759747048574" lon="-1.605632721454644"><ele>285.0</ele><time>2026-03-31T09:35:39Z</time></trkpt><trkpt lat="42.05977438414089" lon="-1.6055346228278626"><ele>285.0</ele><time>2026-03-31T09:35:40Z</time></trkpt><trkpt lat="42.0597921472479" lon="-1.6054499963826954"><ele>285.0</ele><time>2026-03-31T09:35:41Z</time></trkpt><trkpt lat="42.05981248814175" lon="-1.6053122443160683"><ele>285.0</ele><time>2026-03-31T09:35:43Z</time></trkpt><trkpt lat="42.05981962112066" lon="-1.605206443768119"><ele>285.0</ele><time>2026-03-31T09:35:45Z</time></trkpt><trkpt lat="42.059854061007876" lon="-1.6050789533795076"><ele>285.0</ele><time>2026-03-31T09:35:47Z</time></trkpt><trkpt lat="42.05987126092887" lon="-1.6049358895881487"><ele>284.85714285714283</ele><time>2026-03-31T09:35:49Z</time></trkpt><trkpt lat="42.05989753145041" lon="-1.604839015286175"><ele>284.7142857142857</ele><time>2026-03-31T09:35:52Z</time></trkpt><trkpt lat="42.05989598192767" lon="-1.60475102525349"><ele>284.57142857142856</ele><time>2026-03-31T09:35:54Z</time></trkpt><trkpt lat="42.05993468516668" lon="-1.6046701084421722"><ele>284.42857142857144</ele><time>2026-03-31T09:35:56Z</time></trkpt><trkpt lat="42.05994466671908" lon="-1.6045823881127932"><ele>284.2857142857143</ele><time>2026-03-31T09:35:59Z</time></trkpt><trkpt lat="42.05996955619627" lon="-1.6044847812686331"><ele>284.1428571428571</ele><time>2026-03-31T09:36:01Z</time></trkpt><trkpt lat="42.059961366930224" lon="-1.6043834563889254"><ele>284.0</ele><time>2026-03-31T09:36:05Z</time></trkpt><trkpt lat="42.05996565638109" lon="-1.6042894650303392"><ele>284.0</ele><time>2026-03-31T09:36:09Z</time></trkpt><trkpt lat="42.059934544924765" lon="-1.6041911457706963"><ele>284.0</ele><time>2026-03-31T09:36:12Z</time></trkpt><trkpt lat="42.05990408971509" lon="-1.6040742147369051"><ele>284.0</ele><time>2026-03-31T09:36:15Z</time></trkpt><trkpt lat="42.059863361510146" lon="-1.6039759656259531"><ele>284.0</ele><time>2026-03-31T09:36:17Z</time></trkpt><trkpt lat="42.05981623240217" lon="-1.603870131844572"><ele>284.0</ele><time>2026-03-31T09:36:19Z</time></trkpt><trkpt lat="42.059776039278645" lon="-1.603779873815189"><ele>284.0</ele><time>2026-03-31T09:36:22Z</time></trkpt><trkpt lat="42.05988401197778" lon="-1.6036381827313215"><ele>283.33333333333337</ele><time>2026-03-31T09:36:28Z</time></trkpt><trkpt lat="42.059927609895716" lon="-1.6034997232825765"><ele>282.6666666666667</ele><time>2026-03-31T09:36:35Z</time></trkpt><trkpt lat="42.05995678970173" lon="-1.603400282827184"><ele>282.0</ele><time>2026-03-31T09:36:36Z</time></trkpt><trkpt lat="42.059984092588415" lon="-1.6033072386456062"><ele>281.3333333333333</ele><time>2026-03-31T09:36:37Z</time></trkpt><trkpt lat="42.06002429995931" lon="-1.603188374306233"><ele>280.66666666666663</ele><time>2026-03-31T09:36:38Z</time></trkpt><trkpt lat="42.06003602987562" lon="-1.6030985963500666"><ele>280.0</ele><time>2026-03-31T09:36:39Z</time></trkpt><trkpt lat="42.06006247566571" lon="-1.603019802271297"><ele>280.0</ele><time>2026-03-31T09:36:42Z</time></trkpt><trkpt lat="42.06008607455229" lon="-1.6029371621903696"><ele>280.0</ele><time>2026-03-31T09:36:44Z</time></trkpt><trkpt lat="42.0601301937174" lon="-1.6027933881325604"><ele>280.0</ele><time>2026-03-31T09:36:46Z</time></trkpt><trkpt lat="42.0601583442384" lon="-1.6027155214529039"><ele>280.0</ele><time>2026-03-31T09:36:47Z</time></trkpt><trkpt lat="42.06019774384262" lon="-1.6025667060358895"><ele>280.0</ele><time>2026-03-31T09:36:49Z</time></trkpt><trkpt lat="42.06023949467994" lon="-1.602419503347422"><ele>280.0</ele><time>2026-03-31T09:36:51Z</time></trkpt><trkpt lat="42.06027991291665" lon="-1.6022846551348642"><ele>280.0</ele><time>2026-03-31T09:36:53Z</time></trkpt><trkpt lat="42.06031487105321" lon="-1.6021655145900293"><ele>280.0</ele><time>2026-03-31T09:36:55Z</time></trkpt><trkpt lat="42.0603451992481" lon="-1.602059019166105"><ele>280.0</ele><time>2026-03-31T09:36:57Z</time></trkpt><trkpt lat="42.06036838407401" lon="-1.601969115870117"><ele>280.0</ele><time>2026-03-31T09:37:00Z</time></trkpt><trkpt lat="42.06039210925713" lon="-1.601869392842089"><ele>280.0</ele><time>2026-03-31T09:37:08Z</time></trkpt><trkpt lat="42.06041159097401" lon="-1.60176956161992"><ele>279.4</ele><time>2026-03-31T09:37:13Z</time></trkpt><trkpt lat="42.06046325166278" lon="-1.6017181105701779"><ele>278.8</ele><time>2026-03-31T09:37:19Z</time></trkpt><trkpt lat="42.06061601506413" lon="-1.6017869338079498"><ele>278.2</ele><time>2026-03-31T09:37:20Z</time></trkpt><trkpt lat="42.060687045393145" lon="-1.6018282841598674"><ele>277.6</ele><time>2026-03-31T09:37:21Z</time></trkpt><trkpt lat="42.06075499802317" lon="-1.6018928607053784"><ele>277.0</ele><time>2026-03-31T09:37:22Z</time></trkpt><trkpt lat="42.060827440619555" lon="-1.6019620075449497"><ele>276.16666666666663</ele><time>2026-03-31T09:37:23Z</time></trkpt><trkpt lat="42.06089463072563" lon="-1.602026011198731"><ele>275.3333333333333</ele><time>2026-03-31T09:37:24Z</time></trkpt><trkpt lat="42.06095574466124" lon="-1.6020839142446957"><ele>274.5</ele><time>2026-03-31T09:37:25Z</time></trkpt><trkpt lat="42.061012783070304" lon="-1.6021379558917503"><ele>273.6666666666667</ele><time>2026-03-31T09:37:26Z</time></trkpt><trkpt lat="42.061065742922715" lon="-1.6021882938611798"><ele>272.83333333333337</ele><time>2026-03-31T09:37:27Z</time></trkpt><trkpt lat="42.06115520527383" lon="-1.6022733297387208"><ele>272.0</ele><time>2026-03-31T09:37:29Z</time></trkpt><trkpt lat="42.06122615170297" lon="-1.6023396799704888"><ele>272.0</ele><time>2026-03-31T09:37:31Z</time></trkpt><trkpt lat="42.06129561471703" lon="-1.6024040139903633"><ele>272.0</ele><time>2026-03-31T09:37:34Z</time></trkpt><trkpt lat="42.061420386365654" lon="-1.6025155588975586"><ele>272.0</ele><time>2026-03-31T09:37:36Z</time></trkpt><trkpt lat="42.061501739390216" lon="-1.6026072822782365"><ele>272.0</ele><time>2026-03-31T09:37:37Z</time></trkpt><trkpt lat="42.061577598531564" lon="-1.6026749582046311"><ele>272.0</ele><time>2026-03-31T09:37:38Z</time></trkpt><trkpt lat="42.061664719486934" lon="-1.602733158598339"><ele>272.1666666666667</ele><time>2026-03-31T09:37:39Z</time></trkpt><trkpt lat="42.06173751980525" lon="-1.602797611034776"><ele>272.33333333333337</ele><time>2026-03-31T09:37:40Z</time></trkpt><trkpt lat="42.06180547739897" lon="-1.602855600085957"><ele>272.5</ele><time>2026-03-31T09:37:41Z</time></trkpt><trkpt lat="42.06187358193313" lon="-1.6028919716210401"><ele>272.6666666666667</ele><time>2026-03-31T09:37:42Z</time></trkpt><trkpt lat="42.06193048416933" lon="-1.60294565087408"><ele>272.8333333333333</ele><time>2026-03-31T09:37:43Z</time></trkpt><trkpt lat="42.06199006200093" lon="-1.6029810047401092"><ele>273.0</ele><time>2026-03-31T09:37:44Z</time></trkpt><trkpt lat="42.06208078279401" lon="-1.6030722515745068"><ele>272.4</ele><time>2026-03-31T09:37:46Z</time></trkpt><trkpt lat="42.06219730980641" lon="-1.6031359049097405"><ele>271.8</ele><time>2026-03-31T09:37:48Z</time></trkpt><trkpt lat="42.06229527811118" lon="-1.6031707162784115"><ele>271.2</ele><time>2026-03-31T09:37:50Z</time></trkpt><trkpt lat="42.06236934785879" lon="-1.6031823922165556"><ele>270.6</ele><time>2026-03-31T09:37:52Z</time></trkpt><trkpt lat="42.06245085237047" lon="-1.6031399302164502"><ele>270.0</ele><time>2026-03-31T09:37:54Z</time></trkpt><trkpt lat="42.06252636228292" lon="-1.6030186881096737"><ele>270.0</ele><time>2026-03-31T09:37:56Z</time></trkpt><trkpt lat="42.06256519204784" lon="-1.6029495271216967"><ele>270.0</ele><time>2026-03-31T09:37:57Z</time></trkpt><trkpt lat="42.062631871250964" lon="-1.602832804435517"><ele>270.0</ele><time>2026-03-31T09:37:59Z</time></trkpt><trkpt lat="42.06267466350201" lon="-1.6027344667904206"><ele>270.0</ele><time>2026-03-31T09:38:01Z</time></trkpt><trkpt lat="42.06271387291768" lon="-1.6026278768702131"><ele>270.0</ele><time>2026-03-31T09:38:03Z</time></trkpt><trkpt lat="42.062758038091175" lon="-1.6025149512556305"><ele>270.0</ele><time>2026-03-31T09:38:05Z</time></trkpt><trkpt lat="42.06281418778497" lon="-1.6023723299593906"><ele>270.0</ele><time>2026-03-31T09:38:07Z</time></trkpt><trkpt lat="42.06284462929833" lon="-1.6022963109700126"><ele>270.0</ele><time>2026-03-31T09:38:08Z</time></trkpt><trkpt lat="42.06288116090188" lon="-1.602215103154908"><ele>270.0</ele><time>2026-03-31T09:38:09Z</time></trkpt><trkpt lat="42.062922366642965" lon="-1.602122253856693"><ele>270.0</ele><time>2026-03-31T09:38:10Z</time></trkpt><trkpt lat="42.06296248323777" lon="-1.6020337463962047"><ele>270.0</ele><time>2026-03-31T09:38:11Z</time></trkpt><trkpt lat="42.06299499187339" lon="-1.6019493039301476"><ele>270.0</ele><time>2026-03-31T09:38:12Z</time></trkpt><trkpt lat="42.06303328992333" lon="-1.6018667194307727"><ele>270.0</ele><time>2026-03-31T09:38:13Z</time></trkpt><trkpt lat="42.06306962224522" lon="-1.6017869797829065"><ele>270.0</ele><time>2026-03-31T09:38:14Z</time></trkpt><trkpt lat="42.0631267486034" lon="-1.6016488931770885"><ele>270.0</ele><time>2026-03-31T09:38:16Z</time></trkpt><trkpt lat="42.06318708290403" lon="-1.601516822021008"><ele>270.0</ele><time>2026-03-31T09:38:18Z</time></trkpt><trkpt lat="42.06324723265505" lon="-1.6014096793718748"><ele>270.0</ele><time>2026-03-31T09:38:20Z</time></trkpt><trkpt lat="42.06332166488742" lon="-1.6014174747563057"><ele>270.0</ele><time>2026-03-31T09:38:21Z</time></trkpt><trkpt lat="42.06341192122684" lon="-1.6014113058949866"><ele>268.1666666666667</ele><time>2026-03-31T09:38:23Z</time></trkpt><trkpt lat="42.06345427782256" lon="-1.6015013019594686"><ele>266.3333333333333</ele><time>2026-03-31T09:38:28Z</time></trkpt><trkpt lat="42.06351200382319" lon="-1.6015502571234521"><ele>264.5</ele><time>2026-03-31T09:38:29Z</time></trkpt><trkpt lat="42.06359601088801" lon="-1.6016145676377889"><ele>262.66666666666663</ele><time>2026-03-31T09:38:30Z</time></trkpt><trkpt lat="42.06367434538349" lon="-1.6016930624366723"><ele>260.8333333333333</ele><time>2026-03-31T09:38:31Z</time></trkpt><trkpt lat="42.06375897270436" lon="-1.6017808619130292"><ele>259.0</ele><time>2026-03-31T09:38:32Z</time></trkpt><trkpt lat="42.063848563782436" lon="-1.6018770260291921"><ele>259.0</ele><time>2026-03-31T09:38:33Z</time></trkpt><trkpt lat="42.063956236085964" lon="-1.601990460535386"><ele>259.0</ele><time>2026-03-31T09:38:34Z</time></trkpt><trkpt lat="42.06406115278546" lon="-1.602102067133857"><ele>259.0</ele><time>2026-03-31T09:38:35Z</time></trkpt><trkpt lat="42.064163628007535" lon="-1.602208225704016"><ele>259.0</ele><time>2026-03-31T09:38:36Z</time></trkpt><trkpt lat="42.064266761855684" lon="-1.6023160988205611"><ele>258.5</ele><time>2026-03-31T09:38:37Z</time></trkpt><trkpt lat="42.064372490859746" lon="-1.602424204077707"><ele>258.0</ele><time>2026-03-31T09:38:38Z</time></trkpt><trkpt lat="42.06447888066714" lon="-1.602531636006468"><ele>257.5</ele><time>2026-03-31T09:38:39Z</time></trkpt><trkpt lat="42.06458257034285" lon="-1.6026374298755592"><ele>257.0</ele><time>2026-03-31T09:38:40Z</time></trkpt><trkpt lat="42.06468419750552" lon="-1.602752149365477"><ele>257.0</ele><time>2026-03-31T09:38:41Z</time></trkpt><trkpt lat="42.064790157750544" lon="-1.6028621024787213"><ele>257.0</ele><time>2026-03-31T09:38:42Z</time></trkpt><trkpt lat="42.0648975392811" lon="-1.6029706515684063"><ele>257.0</ele><time>2026-03-31T09:38:43Z</time></trkpt><trkpt lat="42.06499468226985" lon="-1.6030696669445599"><ele>257.0</ele><time>2026-03-31T09:38:44Z</time></trkpt><trkpt lat="42.06507670972503" lon="-1.603162364812537"><ele>257.0</ele><time>2026-03-31T09:38:45Z</time></trkpt><trkpt lat="42.06515144735897" lon="-1.603242752265958"><ele>257.0</ele><time>2026-03-31T09:38:46Z</time></trkpt><trkpt lat="42.06522023016335" lon="-1.6033149660737296"><ele>257.0</ele><time>2026-03-31T09:38:47Z</time></trkpt><trkpt lat="42.0652868655764" lon="-1.603375929639914"><ele>257.0</ele><time>2026-03-31T09:38:48Z</time></trkpt><trkpt lat="42.065376489110626" lon="-1.6034038434824431"><ele>257.0</ele><time>2026-03-31T09:38:49Z</time></trkpt><trkpt lat="42.065468117746356" lon="-1.6033749130438173"><ele>257.0</ele><time>2026-03-31T09:38:50Z</time></trkpt><trkpt lat="42.065548666255445" lon="-1.6032854547354753"><ele>257.0</ele><time>2026-03-31T09:38:51Z</time></trkpt><trkpt lat="42.065584255170855" lon="-1.6031421043265688"><ele>257.0</ele><time>2026-03-31T09:38:52Z</time></trkpt><trkpt lat="42.06565037282964" lon="-1.6030127501449725"><ele>257.0</ele><time>2026-03-31T09:38:53Z</time></trkpt><trkpt lat="42.06571197639269" lon="-1.6028882373365594"><ele>257.0</ele><time>2026-03-31T09:38:54Z</time></trkpt><trkpt lat="42.065763082078576" lon="-1.6027798248538916"><ele>257.0</ele><time>2026-03-31T09:38:55Z</time></trkpt><trkpt lat="42.065810335903635" lon="-1.602679583474194"><ele>256.2</ele><time>2026-03-31T09:38:56Z</time></trkpt><trkpt lat="42.065869712959085" lon="-1.6025847100674957"><ele>255.39999999999998</ele><time>2026-03-31T09:38:57Z</time></trkpt><trkpt lat="42.06591639266458" lon="-1.6024742934709766"><ele>254.60000000000002</ele><time>2026-03-31T09:38:58Z</time></trkpt><trkpt lat="42.06596417920801" lon="-1.6023642595300331"><ele>253.8</ele><time>2026-03-31T09:38:59Z</time></trkpt><trkpt lat="42.066013120005785" lon="-1.6022556863600237"><ele>253.0</ele><time>2026-03-31T09:39:00Z</time></trkpt><trkpt lat="42.06605843026922" lon="-1.6021527671982911"><ele>253.0</ele><time>2026-03-31T09:39:01Z</time></trkpt><trkpt lat="42.06610015919344" lon="-1.6020620394745952"><ele>253.0</ele><time>2026-03-31T09:39:02Z</time></trkpt><trkpt lat="42.066146945473356" lon="-1.601970431757348"><ele>253.0</ele><time>2026-03-31T09:39:03Z</time></trkpt><trkpt lat="42.066179647449815" lon="-1.6018604301059156"><ele>253.0</ele><time>2026-03-31T09:39:04Z</time></trkpt><trkpt lat="42.066231208115475" lon="-1.601743303178386"><ele>253.0</ele><time>2026-03-31T09:39:05Z</time></trkpt><trkpt lat="42.06629267187068" lon="-1.6016036954818118"><ele>253.5</ele><time>2026-03-31T09:39:06Z</time></trkpt><trkpt lat="42.06635572165189" lon="-1.60146128005048"><ele>254.0</ele><time>2026-03-31T09:39:07Z</time></trkpt><trkpt lat="42.06641696488011" lon="-1.6013229452312514"><ele>254.5</ele><time>2026-03-31T09:39:08Z</time></trkpt><trkpt lat="42.06648349640413" lon="-1.6011973219872204"><ele>255.0</ele><time>2026-03-31T09:39:09Z</time></trkpt><trkpt lat="42.066534075290704" lon="-1.6010565513780255"><ele>255.25</ele><time>2026-03-31T09:39:10Z</time></trkpt><trkpt lat="42.06659357320124" lon="-1.6009247257899666"><ele>255.5</ele><time>2026-03-31T09:39:11Z</time></trkpt><trkpt lat="42.06665353417484" lon="-1.6007873927567344"><ele>255.75</ele><time>2026-03-31T09:39:12Z</time></trkpt><trkpt lat="42.06671510532028" lon="-1.6006368570214589"><ele>256.0</ele><time>2026-03-31T09:39:13Z</time></trkpt><trkpt lat="42.06678239097985" lon="-1.6004801665579749"><ele>256.0</ele><time>2026-03-31T09:39:14Z</time></trkpt><trkpt lat="42.066850255793405" lon="-1.6003239833182452"><ele>256.0</ele><time>2026-03-31T09:39:15Z</time></trkpt><trkpt lat="42.06691485085193" lon="-1.6001668916247973"><ele>256.0</ele><time>2026-03-31T09:39:16Z</time></trkpt><trkpt lat="42.066980786302125" lon="-1.6000128828458944"><ele>256.0</ele><time>2026-03-31T09:39:17Z</time></trkpt><trkpt lat="42.06705116583489" lon="-1.5998533000063286"><ele>256.0</ele><time>2026-03-31T09:39:18Z</time></trkpt><trkpt lat="42.06712725298581" lon="-1.5996945848234705"><ele>256.0</ele><time>2026-03-31T09:39:19Z</time></trkpt><trkpt lat="42.06721328328183" lon="-1.599525865670188"><ele>256.0</ele><time>2026-03-31T09:39:20Z</time></trkpt><trkpt lat="42.06729703925827" lon="-1.5993484285979707"><ele>256.0</ele><time>2026-03-31T09:39:21Z</time></trkpt><trkpt lat="42.06738259151992" lon="-1.599172666084263"><ele>256.0</ele><time>2026-03-31T09:39:22Z</time></trkpt><trkpt lat="42.06746941406149" lon="-1.599000786750172"><ele>256.0</ele><time>2026-03-31T09:39:23Z</time></trkpt><trkpt lat="42.067550103470545" lon="-1.5988265698076132"><ele>256.0</ele><time>2026-03-31T09:39:24Z</time></trkpt><trkpt lat="42.067631564938914" lon="-1.5986504671947552"><ele>255.33333333333331</ele><time>2026-03-31T09:39:25Z</time></trkpt><trkpt lat="42.067716073519286" lon="-1.5984740073759245"><ele>254.66666666666669</ele><time>2026-03-31T09:39:26Z</time></trkpt><trkpt lat="42.06780109289352" lon="-1.598295919211985"><ele>254.0</ele><time>2026-03-31T09:39:27Z</time></trkpt><trkpt lat="42.067886944508274" lon="-1.5981180883897694"><ele>254.0</ele><time>2026-03-31T09:39:28Z</time></trkpt><trkpt lat="42.06797294296373" lon="-1.5979410124248281"><ele>254.0</ele><time>2026-03-31T09:39:29Z</time></trkpt><trkpt lat="42.06805826281645" lon="-1.597763332711014"><ele>254.0</ele><time>2026-03-31T09:39:30Z</time></trkpt><trkpt lat="42.06814447133784" lon="-1.5975768176355336"><ele>254.0</ele><time>2026-03-31T09:39:31Z</time></trkpt><trkpt lat="42.06823308294114" lon="-1.597390458335307"><ele>254.0</ele><time>2026-03-31T09:39:32Z</time></trkpt><trkpt lat="42.0683238674749" lon="-1.5972024794552646"><ele>254.0</ele><time>2026-03-31T09:39:33Z</time></trkpt><trkpt lat="42.06841434267635" lon="-1.597014223940778"><ele>254.0</ele><time>2026-03-31T09:39:34Z</time></trkpt><trkpt lat="42.068504297457494" lon="-1.5968266918501164"><ele>254.0</ele><time>2026-03-31T09:39:35Z</time></trkpt><trkpt lat="42.06859885907282" lon="-1.596631061716953"><ele>254.0</ele><time>2026-03-31T09:39:36Z</time></trkpt><trkpt lat="42.06870387699191" lon="-1.5964184750815855"><ele>254.0</ele><time>2026-03-31T09:39:37Z</time></trkpt><trkpt lat="42.06880911086903" lon="-1.5962022038052932"><ele>254.0</ele><time>2026-03-31T09:39:38Z</time></trkpt><trkpt lat="42.06890899625306" lon="-1.5959903879008899"><ele>254.0</ele><time>2026-03-31T09:39:39Z</time></trkpt><trkpt lat="42.06900625991452" lon="-1.5957823761515275"><ele>253.33333333333334</ele><time>2026-03-31T09:39:40Z</time></trkpt><trkpt lat="42.06910606015102" lon="-1.5955780148409016"><ele>252.66666666666669</ele><time>2026-03-31T09:39:41Z</time></trkpt><trkpt lat="42.06920452841977" lon="-1.5953722143591829"><ele>252.0</ele><time>2026-03-31T09:39:42Z</time></trkpt><trkpt lat="42.069307754017736" lon="-1.595153182592844"><ele>252.0</ele><time>2026-03-31T09:39:43Z</time></trkpt><trkpt lat="42.06941313856376" lon="-1.5949342551208818"><ele>252.0</ele><time>2026-03-31T09:39:44Z</time></trkpt><trkpt lat="42.06951776100618" lon="-1.59471731651014"><ele>252.0</ele><time>2026-03-31T09:39:45Z</time></trkpt><trkpt lat="42.069623644263224" lon="-1.5945008643850431"><ele>251.0</ele><time>2026-03-31T09:39:46Z</time></trkpt><trkpt lat="42.069728462946635" lon="-1.594282018475401"><ele>250.0</ele><time>2026-03-31T09:39:47Z</time></trkpt><trkpt lat="42.06983299355458" lon="-1.5940622262840818"><ele>249.0</ele><time>2026-03-31T09:39:48Z</time></trkpt><trkpt lat="42.069932372954355" lon="-1.5938376025916055"><ele>249.33333333333331</ele><time>2026-03-31T09:39:49Z</time></trkpt><trkpt lat="42.07002793899489" lon="-1.593606144010723"><ele>249.66666666666666</ele><time>2026-03-31T09:39:50Z</time></trkpt><trkpt lat="42.070120165721846" lon="-1.5933669451070709"><ele>250.0</ele><time>2026-03-31T09:39:51Z</time></trkpt><trkpt lat="42.07020535889537" lon="-1.5931249727478247"><ele>250.0</ele><time>2026-03-31T09:39:52Z</time></trkpt><trkpt lat="42.0702844807862" lon="-1.5928871372688869"><ele>250.0</ele><time>2026-03-31T09:39:53Z</time></trkpt><trkpt lat="42.07036771345771" lon="-1.592641374143422"><ele>250.0</ele><time>2026-03-31T09:39:54Z</time></trkpt><trkpt lat="42.070454678150824" lon="-1.5923933729669622"><ele>250.33333333333331</ele><time>2026-03-31T09:39:55Z</time></trkpt><trkpt lat="42.07054227586082" lon="-1.5921631155439901"><ele>250.66666666666669</ele><time>2026-03-31T09:39:56Z</time></trkpt><trkpt lat="42.070636335524874" lon="-1.5919165654388194"><ele>251.0</ele><time>2026-03-31T09:39:57Z</time></trkpt><trkpt lat="42.0707199252927" lon="-1.5916713759387018"><ele>251.0</ele><time>2026-03-31T09:39:58Z</time></trkpt><trkpt lat="42.07079613995737" lon="-1.5914288891523254"><ele>251.0</ele><time>2026-03-31T09:39:59Z</time></trkpt><trkpt lat="42.07088599924619" lon="-1.5912006233872873"><ele>251.0</ele><time>2026-03-31T09:40:00Z</time></trkpt><trkpt lat="42.070999693691526" lon="-1.5909920863788203"><ele>251.66666666666669</ele><time>2026-03-31T09:40:01Z</time></trkpt><trkpt lat="42.071143076828314" lon="-1.5908106969734788"><ele>252.33333333333331</ele><time>2026-03-31T09:40:02Z</time></trkpt><trkpt lat="42.071310586956045" lon="-1.5906657796179202"><ele>253.0</ele><time>2026-03-31T09:40:03Z</time></trkpt><trkpt lat="42.071489395368786" lon="-1.590542689056331"><ele>252.0</ele><time>2026-03-31T09:40:04Z</time></trkpt><trkpt lat="42.07167243997936" lon="-1.5904282891198733"><ele>251.0</ele><time>2026-03-31T09:40:05Z</time></trkpt><trkpt lat="42.07185543924061" lon="-1.590299988238609"><ele>250.0</ele><time>2026-03-31T09:40:06Z</time></trkpt><trkpt lat="42.072036739498735" lon="-1.5901552385032416"><ele>249.66666666666666</ele><time>2026-03-31T09:40:07Z</time></trkpt><trkpt lat="42.07221796660043" lon="-1.590018710749824"><ele>249.33333333333331</ele><time>2026-03-31T09:40:08Z</time></trkpt><trkpt lat="42.0724022191832" lon="-1.5898846876720887"><ele>249.0</ele><time>2026-03-31T09:40:09Z</time></trkpt><trkpt lat="42.0725785981854" lon="-1.5897478749645877"><ele>249.66666666666669</ele><time>2026-03-31T09:40:10Z</time></trkpt><trkpt lat="42.07275082829323" lon="-1.58960648913088"><ele>250.33333333333334</ele><time>2026-03-31T09:40:11Z</time></trkpt><trkpt lat="42.072922571293944" lon="-1.5894588926591628"><ele>251.0</ele><time>2026-03-31T09:40:12Z</time></trkpt><trkpt lat="42.07308739419113" lon="-1.5892927060381834"><ele>251.0</ele><time>2026-03-31T09:40:13Z</time></trkpt><trkpt lat="42.07324505804044" lon="-1.589118769236516"><ele>251.0</ele><time>2026-03-31T09:40:14Z</time></trkpt><trkpt lat="42.073399277481386" lon="-1.5889458164912296"><ele>251.0</ele><time>2026-03-31T09:40:15Z</time></trkpt><trkpt lat="42.073558920941196" lon="-1.5887815720926113"><ele>251.0</ele><time>2026-03-31T09:40:16Z</time></trkpt><trkpt lat="42.073719777373675" lon="-1.5886151390433467"><ele>251.0</ele><time>2026-03-31T09:40:17Z</time></trkpt><trkpt lat="42.07387611129197" lon="-1.5884379967755797"><ele>251.0</ele><time>2026-03-31T09:40:18Z</time></trkpt><trkpt lat="42.074026363772724" lon="-1.5882479890447723"><ele>251.0</ele><time>2026-03-31T09:40:19Z</time></trkpt><trkpt lat="42.074177327762065" lon="-1.588050520056274"><ele>251.0</ele><time>2026-03-31T09:40:20Z</time></trkpt><trkpt lat="42.074323581165864" lon="-1.5878455077713869"><ele>251.0</ele><time>2026-03-31T09:40:21Z</time></trkpt><trkpt lat="42.074470890885415" lon="-1.5876421374296148"><ele>251.0</ele><time>2026-03-31T09:40:22Z</time></trkpt><trkpt lat="42.07461712867197" lon="-1.5874411393480998"><ele>251.0</ele><time>2026-03-31T09:40:23Z</time></trkpt><trkpt lat="42.074764080127316" lon="-1.5872372804123196"><ele>251.0</ele><time>2026-03-31T09:40:24Z</time></trkpt><trkpt lat="42.074912421325806" lon="-1.587041476244147"><ele>250.33333333333334</ele><time>2026-03-31T09:40:25Z</time></trkpt><trkpt lat="42.07506522255227" lon="-1.5868522889636836"><ele>249.66666666666669</ele><time>2026-03-31T09:40:26Z</time></trkpt><trkpt lat="42.07521955151906" lon="-1.5866658076779658"><ele>249.0</ele><time>2026-03-31T09:40:27Z</time></trkpt><trkpt lat="42.07537569631925" lon="-1.5864853996187316"><ele>249.0</ele><time>2026-03-31T09:40:28Z</time></trkpt><trkpt lat="42.07554202429731" lon="-1.5863193001713556"><ele>249.0</ele><time>2026-03-31T09:40:29Z</time></trkpt><trkpt lat="42.07571327211305" lon="-1.5861533952255462"><ele>249.0</ele><time>2026-03-31T09:40:30Z</time></trkpt><trkpt lat="42.07588580884453" lon="-1.5859977837834471"><ele>249.0</ele><time>2026-03-31T09:40:31Z</time></trkpt><trkpt lat="42.07607109572255" lon="-1.5858667497693109"><ele>249.0</ele><time>2026-03-31T09:40:32Z</time></trkpt><trkpt lat="42.07626840578578" lon="-1.585772348820638"><ele>249.0</ele><time>2026-03-31T09:40:33Z</time></trkpt><trkpt lat="42.0764783325866" lon="-1.5857044603663668"><ele>250.66666666666669</ele><time>2026-03-31T09:40:34Z</time></trkpt><trkpt lat="42.07668720083088" lon="-1.585651706105978"><ele>252.33333333333334</ele><time>2026-03-31T09:40:35Z</time></trkpt><trkpt lat="42.07689925603196" lon="-1.5856056588806997"><ele>254.0</ele><time>2026-03-31T09:40:36Z</time></trkpt><trkpt lat="42.07711084267444" lon="-1.5855551179005767"><ele>254.0</ele><time>2026-03-31T09:40:37Z</time></trkpt><trkpt lat="42.07731520532993" lon="-1.5855043803139317"><ele>254.0</ele><time>2026-03-31T09:40:38Z</time></trkpt><trkpt lat="42.077516289427756" lon="-1.5854544083662236"><ele>254.0</ele><time>2026-03-31T09:40:39Z</time></trkpt><trkpt lat="42.07771793528305" lon="-1.585406534126763"><ele>253.33333333333334</ele><time>2026-03-31T09:40:40Z</time></trkpt><trkpt lat="42.07791562792845" lon="-1.5853586753345117"><ele>252.66666666666669</ele><time>2026-03-31T09:40:41Z</time></trkpt><trkpt lat="42.07811084931485" lon="-1.5853075707378586"><ele>252.0</ele><time>2026-03-31T09:40:42Z</time></trkpt><trkpt lat="42.07830210617571" lon="-1.585263853764338"><ele>252.0</ele><time>2026-03-31T09:40:43Z</time></trkpt><trkpt lat="42.07849349557476" lon="-1.5852249264784115"><ele>252.0</ele><time>2026-03-31T09:40:44Z</time></trkpt><trkpt lat="42.07868340385878" lon="-1.5851825562304922"><ele>252.0</ele><time>2026-03-31T09:40:45Z</time></trkpt><trkpt lat="42.078871628894255" lon="-1.585148522120666"><ele>252.0</ele><time>2026-03-31T09:40:46Z</time></trkpt><trkpt lat="42.07906186723815" lon="-1.5851406687685738"><ele>252.0</ele><time>2026-03-31T09:40:47Z</time></trkpt><trkpt lat="42.07924435513911" lon="-1.5851543155508798"><ele>252.0</ele><time>2026-03-31T09:40:48Z</time></trkpt><trkpt lat="42.07941153290322" lon="-1.585176999025749"><ele>252.25</ele><time>2026-03-31T09:40:49Z</time></trkpt><trkpt lat="42.079566558982236" lon="-1.5851883917526417"><ele>252.5</ele><time>2026-03-31T09:40:50Z</time></trkpt><trkpt lat="42.07969947675898" lon="-1.5851456673341753"><ele>252.75</ele><time>2026-03-31T09:40:51Z</time></trkpt><trkpt lat="42.07980700685885" lon="-1.5850527750362036"><ele>253.0</ele><time>2026-03-31T09:40:52Z</time></trkpt><trkpt lat="42.07990174395622" lon="-1.5849388850645945"><ele>253.25</ele><time>2026-03-31T09:40:53Z</time></trkpt><trkpt lat="42.08000594359423" lon="-1.5848715194525973"><ele>253.5</ele><time>2026-03-31T09:40:54Z</time></trkpt><trkpt lat="42.08012733300609" lon="-1.584881053045283"><ele>253.75</ele><time>2026-03-31T09:40:55Z</time></trkpt><trkpt lat="42.08023467923933" lon="-1.5849664921822066"><ele>254.0</ele><time>2026-03-31T09:40:56Z</time></trkpt><trkpt lat="42.08030543220929" lon="-1.5851094990251067"><ele>254.0</ele><time>2026-03-31T09:40:57Z</time></trkpt><trkpt lat="42.08034166727049" lon="-1.5852905415635619"><ele>254.0</ele><time>2026-03-31T09:40:58Z</time></trkpt><trkpt lat="42.080347329768074" lon="-1.5854975440315868"><ele>254.0</ele><time>2026-03-31T09:40:59Z</time></trkpt><trkpt lat="42.08039584088734" lon="-1.585692861520446"><ele>254.0</ele><time>2026-03-31T09:41:00Z</time></trkpt><trkpt lat="42.080566109441364" lon="-1.5858219591019602"><ele>254.0</ele><time>2026-03-31T09:41:01Z</time></trkpt><trkpt lat="42.08072184330456" lon="-1.5859547411189436"><ele>254.0</ele><time>2026-03-31T09:41:02Z</time></trkpt><trkpt lat="42.08088594379387" lon="-1.5860759068880883"><ele>254.0</ele><time>2026-03-31T09:41:03Z</time></trkpt><trkpt lat="42.08104009317725" lon="-1.5862166153110868"><ele>254.0</ele><time>2026-03-31T09:41:04Z</time></trkpt><trkpt lat="42.08118659239057" lon="-1.5863839995859692"><ele>254.0</ele><time>2026-03-31T09:41:05Z</time></trkpt><trkpt lat="42.08134304563407" lon="-1.586538629312423"><ele>254.0</ele><time>2026-03-31T09:41:06Z</time></trkpt><trkpt lat="42.08150119575035" lon="-1.5866773676651282"><ele>253.33333333333334</ele><time>2026-03-31T09:41:07Z</time></trkpt><trkpt lat="42.081655826362464" lon="-1.5868078187994097"><ele>252.66666666666669</ele><time>2026-03-31T09:41:08Z</time></trkpt><trkpt lat="42.08181960064203" lon="-1.5869308931979158"><ele>252.0</ele><time>2026-03-31T09:41:09Z</time></trkpt><trkpt lat="42.08198996985137" lon="-1.587033879588124"><ele>252.0</ele><time>2026-03-31T09:41:10Z</time></trkpt><trkpt lat="42.08217207623231" lon="-1.5871167270589086"><ele>252.0</ele><time>2026-03-31T09:41:11Z</time></trkpt><trkpt lat="42.08235508993796" lon="-1.5871899469695396"><ele>252.0</ele><time>2026-03-31T09:41:12Z</time></trkpt><trkpt lat="42.082535550171414" lon="-1.587262634337835"><ele>253.0</ele><time>2026-03-31T09:41:13Z</time></trkpt><trkpt lat="42.08271581614851" lon="-1.587336201312835"><ele>254.0</ele><time>2026-03-31T09:41:14Z</time></trkpt><trkpt lat="42.08289700901888" lon="-1.5874001526220523"><ele>255.0</ele><time>2026-03-31T09:41:15Z</time></trkpt><trkpt lat="42.08308553924874" lon="-1.587449689747251"><ele>256.0</ele><time>2026-03-31T09:41:16Z</time></trkpt><trkpt lat="42.08327318889123" lon="-1.5874764737979854"><ele>257.0</ele><time>2026-03-31T09:41:17Z</time></trkpt><trkpt lat="42.083463869696466" lon="-1.587471400559882"><ele>258.0</ele><time>2026-03-31T09:41:18Z</time></trkpt><trkpt lat="42.08366350552137" lon="-1.5874414921912683"><ele>258.0</ele><time>2026-03-31T09:41:19Z</time></trkpt><trkpt lat="42.08386171474473" lon="-1.5874008015060355"><ele>258.0</ele><time>2026-03-31T09:41:20Z</time></trkpt><trkpt lat="42.084054769566286" lon="-1.5873530731104628"><ele>258.0</ele><time>2026-03-31T09:41:21Z</time></trkpt><trkpt lat="42.08425080553866" lon="-1.5872854525845608"><ele>257.3333333333333</ele><time>2026-03-31T09:41:22Z</time></trkpt><trkpt lat="42.08443693416299" lon="-1.587191742460438"><ele>256.66666666666663</ele><time>2026-03-31T09:41:23Z</time></trkpt><trkpt lat="42.08461436156867" lon="-1.5870674202842887"><ele>256.0</ele><time>2026-03-31T09:41:24Z</time></trkpt><trkpt lat="42.084786610208894" lon="-1.5869215306096034"><ele>257.3333333333333</ele><time>2026-03-31T09:41:25Z</time></trkpt><trkpt lat="42.084963868948776" lon="-1.5867632299311765"><ele>258.6666666666667</ele><time>2026-03-31T09:41:26Z</time></trkpt><trkpt lat="42.085140775317505" lon="-1.5866093870562799"><ele>260.0</ele><time>2026-03-31T09:41:27Z</time></trkpt><trkpt lat="42.085315018875285" lon="-1.5864560436981279"><ele>260.0</ele><time>2026-03-31T09:41:28Z</time></trkpt><trkpt lat="42.08548418777915" lon="-1.586293759103421"><ele>260.0</ele><time>2026-03-31T09:41:29Z</time></trkpt><trkpt lat="42.08564325353207" lon="-1.5861195546427589"><ele>260.0</ele><time>2026-03-31T09:41:30Z</time></trkpt><trkpt lat="42.085799712280924" lon="-1.5859373834910477"><ele>259.6666666666667</ele><time>2026-03-31T09:41:31Z</time></trkpt><trkpt lat="42.0859559797094" lon="-1.5857613289728172"><ele>259.3333333333333</ele><time>2026-03-31T09:41:32Z</time></trkpt><trkpt lat="42.0861172394572" lon="-1.5855894721314987"><ele>259.0</ele><time>2026-03-31T09:41:33Z</time></trkpt><trkpt lat="42.08629115335289" lon="-1.5854307383441018"><ele>259.66666666666663</ele><time>2026-03-31T09:41:34Z</time></trkpt><trkpt lat="42.086475209330644" lon="-1.5852894625552205"><ele>260.3333333333333</ele><time>2026-03-31T09:41:35Z</time></trkpt><trkpt lat="42.08666097859223" lon="-1.5851591994052043"><ele>261.0</ele><time>2026-03-31T09:41:36Z</time></trkpt><trkpt lat="42.086846909685136" lon="-1.585042776450034"><ele>261.0</ele><time>2026-03-31T09:41:37Z</time></trkpt><trkpt lat="42.08703860589179" lon="-1.58493676124107"><ele>261.0</ele><time>2026-03-31T09:41:38Z</time></trkpt><trkpt lat="42.08722556902237" lon="-1.5848322629410423"><ele>261.0</ele><time>2026-03-31T09:41:39Z</time></trkpt><trkpt lat="42.087414238026064" lon="-1.5847386413879916"><ele>259.0</ele><time>2026-03-31T09:41:40Z</time></trkpt><trkpt lat="42.08761268262408" lon="-1.5846648102685883"><ele>257.0</ele><time>2026-03-31T09:41:41Z</time></trkpt><trkpt lat="42.08781304160565" lon="-1.5846118767949067"><ele>255.0</ele><time>2026-03-31T09:41:42Z</time></trkpt><trkpt lat="42.088016428475676" lon="-1.5845700820661135"><ele>255.0</ele><time>2026-03-31T09:41:43Z</time></trkpt><trkpt lat="42.08821747221044" lon="-1.5845427256589333"><ele>255.0</ele><time>2026-03-31T09:41:44Z</time></trkpt><trkpt lat="42.08842065254729" lon="-1.584521155907389"><ele>255.0</ele><time>2026-03-31T09:41:45Z</time></trkpt><trkpt lat="42.08861311244144" lon="-1.584501671536037"><ele>256.6666666666667</ele><time>2026-03-31T09:41:46Z</time></trkpt><trkpt lat="42.088809993344036" lon="-1.5844822752807106"><ele>258.33333333333337</ele><time>2026-03-31T09:41:47Z</time></trkpt><trkpt lat="42.08900799873967" lon="-1.5844640463809154"><ele>260.0</ele><time>2026-03-31T09:41:48Z</time></trkpt><trkpt lat="42.089211017564644" lon="-1.5844472316138158"><ele>260.0</ele><time>2026-03-31T09:41:49Z</time></trkpt><trkpt lat="42.08942047747355" lon="-1.5844288686623338"><ele>260.0</ele><time>2026-03-31T09:41:50Z</time></trkpt><trkpt lat="42.089626086457464" lon="-1.5844112046829264"><ele>260.0</ele><time>2026-03-31T09:41:51Z</time></trkpt><trkpt lat="42.08983206716058" lon="-1.5844080853015041"><ele>260.33333333333337</ele><time>2026-03-31T09:41:52Z</time></trkpt><trkpt lat="42.09003292470868" lon="-1.5844369675573455"><ele>260.6666666666667</ele><time>2026-03-31T09:41:53Z</time></trkpt><trkpt lat="42.09023299397342" lon="-1.584488326861485"><ele>261.0</ele><time>2026-03-31T09:41:54Z</time></trkpt><trkpt lat="42.09043737425536" lon="-1.5845504068446574"><ele>259.0</ele><time>2026-03-31T09:41:55Z</time></trkpt><trkpt lat="42.09063942851921" lon="-1.5846258067052634"><ele>257.0</ele><time>2026-03-31T09:41:56Z</time></trkpt><trkpt lat="42.090841512413675" lon="-1.584700812738391"><ele>255.0</ele><time>2026-03-31T09:41:57Z</time></trkpt><trkpt lat="42.09104239339136" lon="-1.5847655629180974"><ele>255.0</ele><time>2026-03-31T09:41:58Z</time></trkpt><trkpt lat="42.09124170728621" lon="-1.5848303533287602"><ele>255.0</ele><time>2026-03-31T09:41:59Z</time></trkpt><trkpt lat="42.09144168296275" lon="-1.584902205977421"><ele>255.0</ele><time>2026-03-31T09:42:00Z</time></trkpt><trkpt lat="42.09164200556697" lon="-1.5849748613280288"><ele>255.66666666666669</ele><time>2026-03-31T09:42:01Z</time></trkpt><trkpt lat="42.09184483995012" lon="-1.5850452993091007"><ele>256.33333333333337</ele><time>2026-03-31T09:42:02Z</time></trkpt><trkpt lat="42.09204102398548" lon="-1.5851174791768148"><ele>257.0</ele><time>2026-03-31T09:42:03Z</time></trkpt><trkpt lat="42.092242678532386" lon="-1.585191277766217"><ele>257.0</ele><time>2026-03-31T09:42:04Z</time></trkpt><trkpt lat="42.09243813927516" lon="-1.5852672327533388"><ele>257.0</ele><time>2026-03-31T09:42:05Z</time></trkpt><trkpt lat="42.09263610990465" lon="-1.5853405542123498"><ele>257.0</ele><time>2026-03-31T09:42:06Z</time></trkpt><trkpt lat="42.09283646291291" lon="-1.5854102389263527"><ele>257.0</ele><time>2026-03-31T09:42:07Z</time></trkpt><trkpt lat="42.09303558090465" lon="-1.5854828426980667"><ele>257.0</ele><time>2026-03-31T09:42:08Z</time></trkpt><trkpt lat="42.09322975728445" lon="-1.5855576095244102"><ele>257.0</ele><time>2026-03-31T09:42:09Z</time></trkpt><trkpt lat="42.09342118965865" lon="-1.585630857250681"><ele>257.6666666666667</ele><time>2026-03-31T09:42:10Z</time></trkpt><trkpt lat="42.09361628016033" lon="-1.5856978406284052"><ele>258.3333333333333</ele><time>2026-03-31T09:42:11Z</time></trkpt><trkpt lat="42.09381541570674" lon="-1.5857610724883633"><ele>259.0</ele><time>2026-03-31T09:42:12Z</time></trkpt><trkpt lat="42.094020957162506" lon="-1.585823320347484"><ele>259.3333333333333</ele><time>2026-03-31T09:42:13Z</time></trkpt><trkpt lat="42.0942315208695" lon="-1.5858827104806863"><ele>259.6666666666667</ele><time>2026-03-31T09:42:14Z</time></trkpt><trkpt lat="42.09444437727914" lon="-1.5859289978823798"><ele>260.0</ele><time>2026-03-31T09:42:15Z</time></trkpt><trkpt lat="42.09465998665218" lon="-1.5859499521036384"><ele>260.0</ele><time>2026-03-31T09:42:16Z</time></trkpt><trkpt lat="42.094876712506064" lon="-1.585961908503225"><ele>260.0</ele><time>2026-03-31T09:42:17Z</time></trkpt><trkpt lat="42.09509062878071" lon="-1.5859657172551564"><ele>260.0</ele><time>2026-03-31T09:42:18Z</time></trkpt><trkpt lat="42.09530020404038" lon="-1.5859490019362257"><ele>260.0</ele><time>2026-03-31T09:42:19Z</time></trkpt><trkpt lat="42.095514405526956" lon="-1.5859230982550163"><ele>260.0</ele><time>2026-03-31T09:42:20Z</time></trkpt><trkpt lat="42.09572439957768" lon="-1.5858875008710185"><ele>260.0</ele><time>2026-03-31T09:42:21Z</time></trkpt><trkpt lat="42.09593331686024" lon="-1.585839086924341"><ele>259.6666666666667</ele><time>2026-03-31T09:42:22Z</time></trkpt><trkpt lat="42.096135470057774" lon="-1.585779404934754"><ele>259.3333333333333</ele><time>2026-03-31T09:42:23Z</time></trkpt><trkpt lat="42.096334605900566" lon="-1.585701427329593"><ele>259.0</ele><time>2026-03-31T09:42:24Z</time></trkpt><trkpt lat="42.096537162535995" lon="-1.5856101848589141"><ele>258.66666666666663</ele><time>2026-03-31T09:42:25Z</time></trkpt><trkpt lat="42.096741127420515" lon="-1.585522881846358"><ele>258.3333333333333</ele><time>2026-03-31T09:42:26Z</time></trkpt><trkpt lat="42.09694872481156" lon="-1.585439128985005"><ele>258.0</ele><time>2026-03-31T09:42:27Z</time></trkpt><trkpt lat="42.097150755000975" lon="-1.5853555574870393"><ele>259.3333333333333</ele><time>2026-03-31T09:42:28Z</time></trkpt><trkpt lat="42.09735655490455" lon="-1.5852723114270673"><ele>260.66666666666663</ele><time>2026-03-31T09:42:29Z</time></trkpt><trkpt lat="42.097561188700844" lon="-1.5851916297930415"><ele>262.0</ele><time>2026-03-31T09:42:30Z</time></trkpt><trkpt lat="42.097761536943366" lon="-1.5851057132999293"><ele>262.3333333333333</ele><time>2026-03-31T09:42:31Z</time></trkpt><trkpt lat="42.09796328417213" lon="-1.5850192911109198"><ele>262.6666666666667</ele><time>2026-03-31T09:42:32Z</time></trkpt><trkpt lat="42.098166243031805" lon="-1.584935090255946"><ele>263.0</ele><time>2026-03-31T09:42:33Z</time></trkpt><trkpt lat="42.098366400772946" lon="-1.584849651081539"><ele>262.0</ele><time>2026-03-31T09:42:34Z</time></trkpt><trkpt lat="42.0985675962237" lon="-1.584749777142356"><ele>261.0</ele><time>2026-03-31T09:42:35Z</time></trkpt><trkpt lat="42.098758869614514" lon="-1.5846379129099688"><ele>260.0</ele><time>2026-03-31T09:42:36Z</time></trkpt><trkpt lat="42.09895180546135" lon="-1.5845080138017784"><ele>261.0</ele><time>2026-03-31T09:42:37Z</time></trkpt><trkpt lat="42.09913919514612" lon="-1.5843727497965425"><ele>262.0</ele><time>2026-03-31T09:42:38Z</time></trkpt><trkpt lat="42.099320822667444" lon="-1.5842385048020786"><ele>263.0</ele><time>2026-03-31T09:42:39Z</time></trkpt><trkpt lat="42.09950500105488" lon="-1.5841051314644836"><ele>263.0</ele><time>2026-03-31T09:42:40Z</time></trkpt><trkpt lat="42.099686129201686" lon="-1.5839807138320878"><ele>263.0</ele><time>2026-03-31T09:42:41Z</time></trkpt><trkpt lat="42.099875635832575" lon="-1.5838429214805385"><ele>263.0</ele><time>2026-03-31T09:42:42Z</time></trkpt><trkpt lat="42.10006163202456" lon="-1.583706031273346"><ele>264.6666666666667</ele><time>2026-03-31T09:42:43Z</time></trkpt><trkpt lat="42.10024699296873" lon="-1.5835715291108219"><ele>266.3333333333333</ele><time>2026-03-31T09:42:44Z</time></trkpt><trkpt lat="42.10043081631127" lon="-1.583438399873259"><ele>268.0</ele><time>2026-03-31T09:42:45Z</time></trkpt><trkpt lat="42.100614899096385" lon="-1.5833125384218634"><ele>265.66666666666663</ele><time>2026-03-31T09:42:46Z</time></trkpt><trkpt lat="42.10080703622199" lon="-1.5832021270385053"><ele>263.3333333333333</ele><time>2026-03-31T09:42:47Z</time></trkpt><trkpt lat="42.10100754418041" lon="-1.583105452682616"><ele>261.0</ele><time>2026-03-31T09:42:48Z</time></trkpt><trkpt lat="42.10121596171245" lon="-1.5830231623765778"><ele>261.0</ele><time>2026-03-31T09:42:49Z</time></trkpt><trkpt lat="42.10142479351672" lon="-1.5829459329005164"><ele>261.0</ele><time>2026-03-31T09:42:50Z</time></trkpt><trkpt lat="42.101631223147" lon="-1.5828644254293927"><ele>261.0</ele><time>2026-03-31T09:42:51Z</time></trkpt><trkpt lat="42.10183279827357" lon="-1.5827676887840085"><ele>263.6666666666667</ele><time>2026-03-31T09:42:52Z</time></trkpt><trkpt lat="42.10202916877379" lon="-1.5826546353879023"><ele>266.33333333333337</ele><time>2026-03-31T09:42:53Z</time></trkpt><trkpt lat="42.1022226377859" lon="-1.5825300880233306"><ele>269.0</ele><time>2026-03-31T09:42:54Z</time></trkpt><trkpt lat="42.10240525998149" lon="-1.5823762306963194"><ele>272.0</ele><time>2026-03-31T09:42:55Z</time></trkpt><trkpt lat="42.1025880663548" lon="-1.5822233759789033"><ele>275.0</ele><time>2026-03-31T09:42:56Z</time></trkpt><trkpt lat="42.102778968047545" lon="-1.5820822221630908"><ele>278.0</ele><time>2026-03-31T09:42:57Z</time></trkpt><trkpt lat="42.102965860932855" lon="-1.5819480617366743"><ele>278.0</ele><time>2026-03-31T09:42:58Z</time></trkpt><trkpt lat="42.103156932771235" lon="-1.5818307832142522"><ele>278.0</ele><time>2026-03-31T09:42:59Z</time></trkpt><trkpt lat="42.10335317570263" lon="-1.5817394457181118"><ele>278.0</ele><time>2026-03-31T09:43:00Z</time></trkpt><trkpt lat="42.103555314831546" lon="-1.5816618641232842"><ele>274.0</ele><time>2026-03-31T09:43:01Z</time></trkpt><trkpt lat="42.103757429056024" lon="-1.5815860046126198"><ele>270.0</ele><time>2026-03-31T09:43:02Z</time></trkpt><trkpt lat="42.10395576154871" lon="-1.581513076403978"><ele>266.0</ele><time>2026-03-31T09:43:03Z</time></trkpt><trkpt lat="42.10415199351139" lon="-1.5814386203538597"><ele>264.0</ele><time>2026-03-31T09:43:04Z</time></trkpt><trkpt lat="42.10434083290788" lon="-1.5813634161035224"><ele>262.0</ele><time>2026-03-31T09:43:05Z</time></trkpt><trkpt lat="42.104524349330084" lon="-1.5812911502570277"><ele>260.0</ele><time>2026-03-31T09:43:06Z</time></trkpt><trkpt lat="42.10470271525385" lon="-1.581222136501482"><ele>264.6666666666667</ele><time>2026-03-31T09:43:07Z</time></trkpt><trkpt lat="42.10488047220453" lon="-1.5811565728517454"><ele>269.3333333333333</ele><time>2026-03-31T09:43:08Z</time></trkpt><trkpt lat="42.10505245858154" lon="-1.5810940631988035"><ele>274.0</ele><time>2026-03-31T09:43:09Z</time></trkpt><trkpt lat="42.10522894150995" lon="-1.5810344599972448"><ele>274.0</ele><time>2026-03-31T09:43:10Z</time></trkpt><trkpt lat="42.10540377915696" lon="-1.5809762894606083"><ele>274.0</ele><time>2026-03-31T09:43:11Z</time></trkpt><trkpt lat="42.10558518582917" lon="-1.5809129358466016"><ele>274.0</ele><time>2026-03-31T09:43:12Z</time></trkpt><trkpt lat="42.105768401037665" lon="-1.5808502356789864"><ele>270.0</ele><time>2026-03-31T09:43:13Z</time></trkpt><trkpt lat="42.10594599104158" lon="-1.5807944601381685"><ele>266.0</ele><time>2026-03-31T09:43:14Z</time></trkpt><trkpt lat="42.106123054410205" lon="-1.5807358929917483"><ele>262.0</ele><time>2026-03-31T09:43:15Z</time></trkpt><trkpt lat="42.106302724716414" lon="-1.5806694018737832"><ele>262.0</ele><time>2026-03-31T09:43:16Z</time></trkpt><trkpt lat="42.10647645641559" lon="-1.580597315663125"><ele>262.0</ele><time>2026-03-31T09:43:17Z</time></trkpt><trkpt lat="42.10662960543876" lon="-1.5805171011231782"><ele>262.0</ele><time>2026-03-31T09:43:18Z</time></trkpt><trkpt lat="42.1067749914293" lon="-1.5804348330595508"><ele>260.5</ele><time>2026-03-31T09:43:19Z</time></trkpt><trkpt lat="42.106909364026514" lon="-1.5803564249869255"><ele>259.0</ele><time>2026-03-31T09:43:20Z</time></trkpt><trkpt lat="42.107048538843415" lon="-1.5802772551444992"><ele>257.5</ele><time>2026-03-31T09:43:21Z</time></trkpt><trkpt lat="42.1071878367365" lon="-1.5802021224673362"><ele>256.0</ele><time>2026-03-31T09:43:22Z</time></trkpt><trkpt lat="42.10731908789894" lon="-1.5801251238803027"><ele>258.66666666666663</ele><time>2026-03-31T09:43:23Z</time></trkpt><trkpt lat="42.10745006682066" lon="-1.580036919050117"><ele>261.3333333333333</ele><time>2026-03-31T09:43:24Z</time></trkpt><trkpt lat="42.10760052568778" lon="-1.5799357736991417"><ele>264.0</ele><time>2026-03-31T09:43:25Z</time></trkpt><trkpt lat="42.10774294408067" lon="-1.5798310981709422"><ele>264.0</ele><time>2026-03-31T09:43:26Z</time></trkpt><trkpt lat="42.1078977406221" lon="-1.5797122579651088"><ele>264.0</ele><time>2026-03-31T09:43:27Z</time></trkpt><trkpt lat="42.108056693939524" lon="-1.5795953125316928"><ele>264.0</ele><time>2026-03-31T09:43:28Z</time></trkpt><trkpt lat="42.10819724304148" lon="-1.5794802892352524"><ele>265.0</ele><time>2026-03-31T09:43:29Z</time></trkpt><trkpt lat="42.10833335417448" lon="-1.5793601945883935"><ele>266.0</ele><time>2026-03-31T09:43:30Z</time></trkpt><trkpt lat="42.108462495511674" lon="-1.5792460729303825"><ele>267.0</ele><time>2026-03-31T09:43:31Z</time></trkpt><trkpt lat="42.10858051732537" lon="-1.5791373801602355"><ele>267.0</ele><time>2026-03-31T09:43:32Z</time></trkpt><trkpt lat="42.10869479297016" lon="-1.5790314984205198"><ele>267.0</ele><time>2026-03-31T09:43:33Z</time></trkpt><trkpt lat="42.10880145594351" lon="-1.5789324640030877"><ele>267.0</ele><time>2026-03-31T09:43:34Z</time></trkpt><trkpt lat="42.1089049618944" lon="-1.5788416913761836"><ele>267.0</ele><time>2026-03-31T09:43:35Z</time></trkpt><trkpt lat="42.10899492818162" lon="-1.5787305160010507"><ele>266.6</ele><time>2026-03-31T09:43:36Z</time></trkpt><trkpt lat="42.109100709553736" lon="-1.578645827035909"><ele>266.2</ele><time>2026-03-31T09:43:37Z</time></trkpt><trkpt lat="42.109194473589326" lon="-1.5785634887781776"><ele>265.8</ele><time>2026-03-31T09:43:38Z</time></trkpt><trkpt lat="42.10928208600868" lon="-1.5784918625825666"><ele>265.4</ele><time>2026-03-31T09:43:39Z</time></trkpt><trkpt lat="42.109361761432666" lon="-1.578428472296169"><ele>265.0</ele><time>2026-03-31T09:43:40Z</time></trkpt><trkpt lat="42.1094274482178" lon="-1.5783819543577933"><ele>265.0</ele><time>2026-03-31T09:43:41Z</time></trkpt><trkpt lat="42.10948859376811" lon="-1.5783398246367994"><ele>265.0</ele><time>2026-03-31T09:43:43Z</time></trkpt><trkpt lat="42.109558931615254" lon="-1.5782885210987458"><ele>265.0</ele><time>2026-03-31T09:44:01Z</time></trkpt><trkpt lat="42.10962984157425" lon="-1.5782397553389316"><ele>265.0</ele><time>2026-03-31T09:44:04Z</time></trkpt><trkpt lat="42.1096888755813" lon="-1.5781955275948691"><ele>265.0</ele><time>2026-03-31T09:44:07Z</time></trkpt><trkpt lat="42.109770042797884" lon="-1.5781495047017033"><ele>265.0</ele><time>2026-03-31T09:44:10Z</time></trkpt><trkpt lat="42.10983466969929" lon="-1.5781094487621543"><ele>265.0</ele><time>2026-03-31T09:44:13Z</time></trkpt><trkpt lat="42.10989701505842" lon="-1.5780622547642935"><ele>265.0</ele><time>2026-03-31T09:44:18Z</time></trkpt><trkpt lat="42.110013541006815" lon="-1.5780013897406198"><ele>265.0</ele><time>2026-03-31T09:45:22Z</time></trkpt><trkpt lat="42.11008756427267" lon="-1.5779664042544597"><ele>265.0</ele><time>2026-03-31T09:45:23Z</time></trkpt><trkpt lat="42.11019361904334" lon="-1.5779182282598736"><ele>265.0</ele><time>2026-03-31T09:45:24Z</time></trkpt><trkpt lat="42.11032054004473" lon="-1.5778762243990134"><ele>263.0</ele><time>2026-03-31T09:45:25Z</time></trkpt><trkpt lat="42.110464898873516" lon="-1.5778470744783146"><ele>261.0</ele><time>2026-03-31T09:45:26.001Z</time></trkpt><trkpt lat="42.110616239278336" lon="-1.5778399223016828"><ele>259.0</ele><time>2026-03-31T09:45:27Z</time></trkpt><trkpt lat="42.11076617256913" lon="-1.5778526134102069"><ele>257.0</ele><time>2026-03-31T09:45:28Z</time></trkpt><trkpt lat="42.110921259514456" lon="-1.5778805309186814"><ele>257.0</ele><time>2026-03-31T09:45:29Z</time></trkpt><trkpt lat="42.11107523022044" lon="-1.5779248619479687"><ele>257.0</ele><time>2026-03-31T09:45:30Z</time></trkpt><trkpt lat="42.11124295595093" lon="-1.5779695207505564"><ele>257.0</ele><time>2026-03-31T09:45:31Z</time></trkpt><trkpt lat="42.111429677513414" lon="-1.578015235705973"><ele>257.0</ele><time>2026-03-31T09:45:32Z</time></trkpt><trkpt lat="42.111603206938916" lon="-1.578062673502473"><ele>257.0</ele><time>2026-03-31T09:45:33Z</time></trkpt><trkpt lat="42.111763938999324" lon="-1.5781075458475777"><ele>257.0</ele><time>2026-03-31T09:45:34Z</time></trkpt><trkpt lat="42.11192639789802" lon="-1.578147847464952"><ele>257.0</ele><time>2026-03-31T09:45:35Z</time></trkpt><trkpt lat="42.11209661430158" lon="-1.5781922155487131"><ele>257.0</ele><time>2026-03-31T09:45:36Z</time></trkpt><trkpt lat="42.112275921725264" lon="-1.5782398304180192"><ele>257.0</ele><time>2026-03-31T09:45:37Z</time></trkpt><trkpt lat="42.112449801630305" lon="-1.5782807186347676"><ele>257.0</ele><time>2026-03-31T09:45:38Z</time></trkpt><trkpt lat="42.112622416252606" lon="-1.5783224603428212"><ele>257.0</ele><time>2026-03-31T09:45:39Z</time></trkpt><trkpt lat="42.11279526707695" lon="-1.5783739356466835"><ele>257.0</ele><time>2026-03-31T09:45:40Z</time></trkpt><trkpt lat="42.112965878962" lon="-1.57842016071166"><ele>257.0</ele><time>2026-03-31T09:45:41Z</time></trkpt><trkpt lat="42.113138636028964" lon="-1.5784708723891918"><ele>257.0</ele><time>2026-03-31T09:45:42Z</time></trkpt><trkpt lat="42.113312503505576" lon="-1.578521325091525"><ele>257.0</ele><time>2026-03-31T09:45:43Z</time></trkpt><trkpt lat="42.11348283298059" lon="-1.578566110429058"><ele>257.0</ele><time>2026-03-31T09:45:44Z</time></trkpt><trkpt lat="42.1136490067854" lon="-1.578610470982839"><ele>257.0</ele><time>2026-03-31T09:45:45Z</time></trkpt><trkpt lat="42.11381144158242" lon="-1.5786599710543776"><ele>257.0</ele><time>2026-03-31T09:45:46Z</time></trkpt><trkpt lat="42.113976644041905" lon="-1.5787087122479948"><ele>256.6666666666667</ele><time>2026-03-31T09:45:47Z</time></trkpt><trkpt lat="42.114146731087864" lon="-1.5787581065875809"><ele>256.3333333333333</ele><time>2026-03-31T09:45:48Z</time></trkpt><trkpt lat="42.114319103736364" lon="-1.5788043319701304"><ele>256.0</ele><time>2026-03-31T09:45:49Z</time></trkpt><trkpt lat="42.11449474877642" lon="-1.5788485616458763"><ele>256.0</ele><time>2026-03-31T09:45:50Z</time></trkpt><trkpt lat="42.114675167818355" lon="-1.5788953363862797"><ele>256.0</ele><time>2026-03-31T09:45:51Z</time></trkpt><trkpt lat="42.11484190078588" lon="-1.5789333812903394"><ele>256.0</ele><time>2026-03-31T09:45:52Z</time></trkpt><trkpt lat="42.115017258304356" lon="-1.5789752146098903"><ele>256.0</ele><time>2026-03-31T09:45:53Z</time></trkpt><trkpt lat="42.115195180240214" lon="-1.5790249371579002"><ele>256.0</ele><time>2026-03-31T09:45:54Z</time></trkpt><trkpt lat="42.11537003668825" lon="-1.5790726964181951"><ele>256.0</ele><time>2026-03-31T09:45:55Z</time></trkpt><trkpt lat="42.115538984818805" lon="-1.579114764668061"><ele>256.0</ele><time>2026-03-31T09:45:56Z</time></trkpt><trkpt lat="42.1157073397201" lon="-1.5791585811029927"><ele>256.0</ele><time>2026-03-31T09:45:57Z</time></trkpt><trkpt lat="42.11587130853396" lon="-1.5792067414930842"><ele>256.0</ele><time>2026-03-31T09:45:58Z</time></trkpt><trkpt lat="42.11603615228375" lon="-1.5792595454466556"><ele>256.0</ele><time>2026-03-31T09:45:59Z</time></trkpt><trkpt lat="42.11620668409179" lon="-1.5793125252300242"><ele>256.0</ele><time>2026-03-31T09:46:00Z</time></trkpt><trkpt lat="42.116378137467024" lon="-1.5793614684049013"><ele>256.0</ele><time>2026-03-31T09:46:01Z</time></trkpt><trkpt lat="42.116548803474" lon="-1.5794073991779647"><ele>255.66666666666666</ele><time>2026-03-31T09:46:02Z</time></trkpt><trkpt lat="42.116720730730094" lon="-1.5794555063651983"><ele>255.33333333333331</ele><time>2026-03-31T09:46:03Z</time></trkpt><trkpt lat="42.11689245415071" lon="-1.579497986285578"><ele>255.0</ele><time>2026-03-31T09:46:04Z</time></trkpt><trkpt lat="42.117066814886265" lon="-1.5795375339002864"><ele>255.0</ele><time>2026-03-31T09:46:05Z</time></trkpt><trkpt lat="42.117242233416114" lon="-1.5795785365601969"><ele>255.0</ele><time>2026-03-31T09:46:06Z</time></trkpt><trkpt lat="42.1174219753938" lon="-1.5796212209456424"><ele>255.0</ele><time>2026-03-31T09:46:07Z</time></trkpt><trkpt lat="42.1176122118577" lon="-1.579660848503173"><ele>255.33333333333331</ele><time>2026-03-31T09:46:08Z</time></trkpt><trkpt lat="42.117799097316116" lon="-1.5797136474648572"><ele>255.66666666666666</ele><time>2026-03-31T09:46:09Z</time></trkpt><trkpt lat="42.117979845849774" lon="-1.5797736814653769"><ele>256.0</ele><time>2026-03-31T09:46:10Z</time></trkpt><trkpt lat="42.1181596627854" lon="-1.5798237649299456"><ele>255.66666666666666</ele><time>2026-03-31T09:46:11Z</time></trkpt><trkpt lat="42.11834001039081" lon="-1.5798640491895495"><ele>255.33333333333331</ele><time>2026-03-31T09:46:12Z</time></trkpt><trkpt lat="42.11851879458063" lon="-1.5799100930162333"><ele>255.0</ele><time>2026-03-31T09:46:13Z</time></trkpt><trkpt lat="42.11869946987421" lon="-1.579960372694258"><ele>255.0</ele><time>2026-03-31T09:46:14Z</time></trkpt><trkpt lat="42.11888310888785" lon="-1.5800089542765325"><ele>255.0</ele><time>2026-03-31T09:46:15Z</time></trkpt><trkpt lat="42.1190708975331" lon="-1.580066089825727"><ele>255.0</ele><time>2026-03-31T09:46:16Z</time></trkpt><trkpt lat="42.119266623968535" lon="-1.5801338660051674"><ele>254.66666666666669</ele><time>2026-03-31T09:46:17Z</time></trkpt><trkpt lat="42.11947075805171" lon="-1.5801988654711967"><ele>254.33333333333334</ele><time>2026-03-31T09:46:18Z</time></trkpt><trkpt lat="42.11967609830796" lon="-1.5802521907191212"><ele>254.0</ele><time>2026-03-31T09:46:19Z</time></trkpt><trkpt lat="42.11987659905222" lon="-1.5803006994874362"><ele>254.66666666666669</ele><time>2026-03-31T09:46:20Z</time></trkpt><trkpt lat="42.12008204760867" lon="-1.580352361387602"><ele>255.33333333333331</ele><time>2026-03-31T09:46:21Z</time></trkpt><trkpt lat="42.12028595879462" lon="-1.5803968429876594"><ele>256.0</ele><time>2026-03-31T09:46:22Z</time></trkpt><trkpt lat="42.12048885473921" lon="-1.5804398798270745"><ele>256.0</ele><time>2026-03-31T09:46:23Z</time></trkpt><trkpt lat="42.12069017297667" lon="-1.5804934316927874"><ele>256.0</ele><time>2026-03-31T09:46:24Z</time></trkpt><trkpt lat="42.12088689509364" lon="-1.5805497769933492"><ele>256.0</ele><time>2026-03-31T09:46:25Z</time></trkpt><trkpt lat="42.12108799319019" lon="-1.5806076916473568"><ele>256.0</ele><time>2026-03-31T09:46:26Z</time></trkpt><trkpt lat="42.12129071166946" lon="-1.580667468137208"><ele>256.0</ele><time>2026-03-31T09:46:27Z</time></trkpt><trkpt lat="42.1214942813671" lon="-1.5807300710794185"><ele>256.0</ele><time>2026-03-31T09:46:28Z</time></trkpt><trkpt lat="42.12169619616694" lon="-1.5807884033786017"><ele>255.66666666666666</ele><time>2026-03-31T09:46:29Z</time></trkpt><trkpt lat="42.12189651458308" lon="-1.5808463606902854"><ele>255.33333333333331</ele><time>2026-03-31T09:46:30Z</time></trkpt><trkpt lat="42.122094154561594" lon="-1.5808987165130952"><ele>255.0</ele><time>2026-03-31T09:46:31Z</time></trkpt><trkpt lat="42.122290817141526" lon="-1.5809571281846493"><ele>255.33333333333331</ele><time>2026-03-31T09:46:32Z</time></trkpt><trkpt lat="42.122493685138345" lon="-1.58100939171011"><ele>255.66666666666666</ele><time>2026-03-31T09:46:33Z</time></trkpt><trkpt lat="42.12269984093291" lon="-1.5810627335746967"><ele>256.0</ele><time>2026-03-31T09:46:34Z</time></trkpt><trkpt lat="42.12290892544619" lon="-1.5811189769521383"><ele>256.0</ele><time>2026-03-31T09:46:35Z</time></trkpt><trkpt lat="42.12311558881648" lon="-1.5811774534711525"><ele>256.0</ele><time>2026-03-31T09:46:36Z</time></trkpt><trkpt lat="42.12332173385792" lon="-1.581231081576477"><ele>256.0</ele><time>2026-03-31T09:46:37Z</time></trkpt><trkpt lat="42.12352160815173" lon="-1.5812822377486202"><ele>255.66666666666666</ele><time>2026-03-31T09:46:38Z</time></trkpt><trkpt lat="42.12372430499808" lon="-1.581342608408303"><ele>255.33333333333331</ele><time>2026-03-31T09:46:39Z</time></trkpt><trkpt lat="42.123931784098126" lon="-1.5813994835685812"><ele>255.0</ele><time>2026-03-31T09:46:40Z</time></trkpt><trkpt lat="42.12413412193323" lon="-1.5814493685576947"><ele>255.0</ele><time>2026-03-31T09:46:41Z</time></trkpt><trkpt lat="42.124338436516744" lon="-1.581504879253343"><ele>255.0</ele><time>2026-03-31T09:46:42Z</time></trkpt><trkpt lat="42.12454217704606" lon="-1.5815614467445536"><ele>255.0</ele><time>2026-03-31T09:46:43Z</time></trkpt><trkpt lat="42.12474034578586" lon="-1.581612626401967"><ele>255.33333333333331</ele><time>2026-03-31T09:46:44Z</time></trkpt><trkpt lat="42.12493641418163" lon="-1.5816661793396296"><ele>255.66666666666666</ele><time>2026-03-31T09:46:45Z</time></trkpt><trkpt lat="42.125135602274334" lon="-1.581720056498984"><ele>256.0</ele><time>2026-03-31T09:46:46Z</time></trkpt><trkpt lat="42.125337940591315" lon="-1.5817732127019546"><ele>256.0</ele><time>2026-03-31T09:46:47Z</time></trkpt><trkpt lat="42.12553943251497" lon="-1.581825746542679"><ele>256.0</ele><time>2026-03-31T09:46:48Z</time></trkpt><trkpt lat="42.12574459627445" lon="-1.5818832340463262"><ele>256.0</ele><time>2026-03-31T09:46:49Z</time></trkpt><trkpt lat="42.125946581853235" lon="-1.5819401805687114"><ele>256.0</ele><time>2026-03-31T09:46:50Z</time></trkpt><trkpt lat="42.12614957272325" lon="-1.581995734622062"><ele>256.0</ele><time>2026-03-31T09:46:51Z</time></trkpt><trkpt lat="42.126352763961485" lon="-1.5820462746210666"><ele>256.0</ele><time>2026-03-31T09:46:52Z</time></trkpt><trkpt lat="42.12655375861384" lon="-1.5821028015521652"><ele>256.0</ele><time>2026-03-31T09:46:53Z</time></trkpt><trkpt lat="42.12675067347775" lon="-1.5821622443953387"><ele>256.0</ele><time>2026-03-31T09:46:54Z</time></trkpt><trkpt lat="42.12695182428223" lon="-1.582214418104917"><ele>256.0</ele><time>2026-03-31T09:46:55Z</time></trkpt><trkpt lat="42.12715496935998" lon="-1.5822618254668583"><ele>256.0</ele><time>2026-03-31T09:46:56Z</time></trkpt><trkpt lat="42.1273594785879" lon="-1.5823177803386468"><ele>256.0</ele><time>2026-03-31T09:46:57Z</time></trkpt><trkpt lat="42.12756320487473" lon="-1.5823781784316444"><ele>256.0</ele><time>2026-03-31T09:46:58Z</time></trkpt><trkpt lat="42.12776730557764" lon="-1.5824330395714825"><ele>255.66666666666666</ele><time>2026-03-31T09:46:59Z</time></trkpt><trkpt lat="42.12797256004808" lon="-1.5824858761576623"><ele>255.33333333333331</ele><time>2026-03-31T09:47:00Z</time></trkpt><trkpt lat="42.12817892763586" lon="-1.5825420720367063"><ele>255.0</ele><time>2026-03-31T09:47:01Z</time></trkpt><trkpt lat="42.128387711488465" lon="-1.5826035611806517"><ele>255.66666666666669</ele><time>2026-03-31T09:47:02Z</time></trkpt><trkpt lat="42.12860416551703" lon="-1.5826610753949337"><ele>256.33333333333337</ele><time>2026-03-31T09:47:03Z</time></trkpt><trkpt lat="42.128818530371575" lon="-1.582714415452441"><ele>257.0</ele><time>2026-03-31T09:47:04Z</time></trkpt><trkpt lat="42.129034454236795" lon="-1.5827699717179713"><ele>257.0</ele><time>2026-03-31T09:47:05Z</time></trkpt><trkpt lat="42.12924509951658" lon="-1.5828269491022975"><ele>257.0</ele><time>2026-03-31T09:47:06Z</time></trkpt><trkpt lat="42.12945596975471" lon="-1.5828854087717648"><ele>257.0</ele><time>2026-03-31T09:47:07Z</time></trkpt><trkpt lat="42.12966658856026" lon="-1.5829427598003423"><ele>257.0</ele><time>2026-03-31T09:47:08Z</time></trkpt><trkpt lat="42.12987621330935" lon="-1.5830012461365313"><ele>257.0</ele><time>2026-03-31T09:47:09Z</time></trkpt><trkpt lat="42.130082467666824" lon="-1.5830546746186562"><ele>257.0</ele><time>2026-03-31T09:47:10Z</time></trkpt><trkpt lat="42.13029202678069" lon="-1.5831125227835938"><ele>257.33333333333337</ele><time>2026-03-31T09:47:11Z</time></trkpt><trkpt lat="42.13049922454423" lon="-1.5831694248687607"><ele>257.6666666666667</ele><time>2026-03-31T09:47:12Z</time></trkpt><trkpt lat="42.130713819279066" lon="-1.5832312623158462"><ele>258.0</ele><time>2026-03-31T09:47:13Z</time></trkpt><trkpt lat="42.130927527885405" lon="-1.583288223700263"><ele>258.0</ele><time>2026-03-31T09:47:14Z</time></trkpt><trkpt lat="42.13114265028636" lon="-1.583347259613562"><ele>258.0</ele><time>2026-03-31T09:47:15Z</time></trkpt><trkpt lat="42.13135776734084" lon="-1.5833995707608581"><ele>258.0</ele><time>2026-03-31T09:47:16Z</time></trkpt><trkpt lat="42.1315755459446" lon="-1.5834558578049758"><ele>257.6666666666667</ele><time>2026-03-31T09:47:17Z</time></trkpt><trkpt lat="42.13179451333598" lon="-1.5835176643101665"><ele>257.33333333333337</ele><time>2026-03-31T09:47:18Z</time></trkpt><trkpt lat="42.1320128730403" lon="-1.5835786307994482"><ele>257.0</ele><time>2026-03-31T09:47:19Z</time></trkpt><trkpt lat="42.132229799135196" lon="-1.5836340334703023"><ele>257.0</ele><time>2026-03-31T09:47:20Z</time></trkpt><trkpt lat="42.132444479811" lon="-1.5836865849434358"><ele>257.0</ele><time>2026-03-31T09:47:21Z</time></trkpt><trkpt lat="42.1326560018598" lon="-1.5837444541045231"><ele>257.0</ele><time>2026-03-31T09:47:22Z</time></trkpt><trkpt lat="42.13286506355984" lon="-1.5838008376586596"><ele>257.0</ele><time>2026-03-31T09:47:23Z</time></trkpt><trkpt lat="42.13307369359152" lon="-1.5838554525924922"><ele>257.0</ele><time>2026-03-31T09:47:24Z</time></trkpt><trkpt lat="42.13327990673715" lon="-1.5839118104480188"><ele>257.0</ele><time>2026-03-31T09:47:25Z</time></trkpt><trkpt lat="42.13348699323661" lon="-1.5839693886985087"><ele>257.0</ele><time>2026-03-31T09:47:26Z</time></trkpt><trkpt lat="42.13369734938647" lon="-1.5840293491371265"><ele>257.0</ele><time>2026-03-31T09:47:27Z</time></trkpt><trkpt lat="42.133908440831846" lon="-1.584085336877603"><ele>257.0</ele><time>2026-03-31T09:47:28Z</time></trkpt><trkpt lat="42.13411921610702" lon="-1.5841438513954338"><ele>257.0</ele><time>2026-03-31T09:47:29Z</time></trkpt><trkpt lat="42.13432431830237" lon="-1.5842077408518318"><ele>257.0</ele><time>2026-03-31T09:47:30Z</time></trkpt><trkpt lat="42.13453441369013" lon="-1.5842672978411805"><ele>257.0</ele><time>2026-03-31T09:47:31Z</time></trkpt><trkpt lat="42.134749384135795" lon="-1.5843223092483696"><ele>256.6666666666667</ele><time>2026-03-31T09:47:32Z</time></trkpt><trkpt lat="42.13496312712316" lon="-1.5843778571654115"><ele>256.3333333333333</ele><time>2026-03-31T09:47:33Z</time></trkpt><trkpt lat="42.135180421833205" lon="-1.5844355445943754"><ele>256.0</ele><time>2026-03-31T09:47:34Z</time></trkpt><trkpt lat="42.135400313704665" lon="-1.5844965021724584"><ele>256.0</ele><time>2026-03-31T09:47:35Z</time></trkpt><trkpt lat="42.13561371449177" lon="-1.5845619164462597"><ele>256.0</ele><time>2026-03-31T09:47:36Z</time></trkpt><trkpt lat="42.13582926990946" lon="-1.5846202938319442"><ele>256.0</ele><time>2026-03-31T09:47:37Z</time></trkpt><trkpt lat="42.13604936988567" lon="-1.5846712011987132"><ele>255.5</ele><time>2026-03-31T09:47:38Z</time></trkpt><trkpt lat="42.13627234396682" lon="-1.5847370113492867"><ele>255.0</ele><time>2026-03-31T09:47:39Z</time></trkpt><trkpt lat="42.13649420740421" lon="-1.584801372686165"><ele>255.33333333333331</ele><time>2026-03-31T09:47:40Z</time></trkpt><trkpt lat="42.13671328082079" lon="-1.5848572010096877"><ele>255.66666666666666</ele><time>2026-03-31T09:47:41Z</time></trkpt><trkpt lat="42.13693269671759" lon="-1.5849148114054352"><ele>256.0</ele><time>2026-03-31T09:47:42Z</time></trkpt><trkpt lat="42.13715182566528" lon="-1.5849762831358165"><ele>256.0</ele><time>2026-03-31T09:47:43Z</time></trkpt><trkpt lat="42.137367368625306" lon="-1.5850364044469831"><ele>256.0</ele><time>2026-03-31T09:47:44Z</time></trkpt><trkpt lat="42.137583502267105" lon="-1.5851000947551872"><ele>256.0</ele><time>2026-03-31T09:47:45Z</time></trkpt><trkpt lat="42.13779763668462" lon="-1.5851626277769575"><ele>256.66666666666663</ele><time>2026-03-31T09:47:46Z</time></trkpt><trkpt lat="42.13800923256029" lon="-1.585219571785199"><ele>257.3333333333333</ele><time>2026-03-31T09:47:47Z</time></trkpt><trkpt lat="42.13822157933479" lon="-1.5852750861871705"><ele>258.0</ele><time>2026-03-31T09:47:48Z</time></trkpt><trkpt lat="42.138435483711916" lon="-1.5853312880056534"><ele>258.0</ele><time>2026-03-31T09:47:49Z</time></trkpt><trkpt lat="42.138655374642475" lon="-1.585393107406912"><ele>258.0</ele><time>2026-03-31T09:47:50Z</time></trkpt><trkpt lat="42.138870530680876" lon="-1.585458146695403"><ele>258.0</ele><time>2026-03-31T09:47:51Z</time></trkpt><trkpt lat="42.13908418369398" lon="-1.5855177527815698"><ele>257.6666666666667</ele><time>2026-03-31T09:47:52Z</time></trkpt><trkpt lat="42.13929163431726" lon="-1.5855664524242181"><ele>257.33333333333337</ele><time>2026-03-31T09:47:53Z</time></trkpt><trkpt lat="42.13950125777902" lon="-1.5856291416711703"><ele>257.0</ele><time>2026-03-31T09:47:54Z</time></trkpt><trkpt lat="42.139713075902314" lon="-1.5856936691122578"><ele>256.6666666666667</ele><time>2026-03-31T09:47:55Z</time></trkpt><trkpt lat="42.1399292229488" lon="-1.585752056653202"><ele>256.3333333333333</ele><time>2026-03-31T09:47:56Z</time></trkpt><trkpt lat="42.14014707382878" lon="-1.585806895759274"><ele>256.0</ele><time>2026-03-31T09:47:57Z</time></trkpt><trkpt lat="42.140365992309775" lon="-1.5858675860391087"><ele>256.0</ele><time>2026-03-31T09:47:58Z</time></trkpt><trkpt lat="42.14058554523895" lon="-1.585931509330723"><ele>256.0</ele><time>2026-03-31T09:47:59Z</time></trkpt><trkpt lat="42.14080910776187" lon="-1.585992539997585"><ele>256.5</ele><time>2026-03-31T09:48:00Z</time></trkpt><trkpt lat="42.141031673049646" lon="-1.5860519636019619"><ele>257.0</ele><time>2026-03-31T09:48:01Z</time></trkpt><trkpt lat="42.141255553162296" lon="-1.5861119842288893"><ele>257.0</ele><time>2026-03-31T09:48:02Z</time></trkpt><trkpt lat="42.1414764292787" lon="-1.5861775932505433"><ele>257.0</ele><time>2026-03-31T09:48:03Z</time></trkpt><trkpt lat="42.14170089932089" lon="-1.5862494055373269"><ele>256.0</ele><time>2026-03-31T09:48:04Z</time></trkpt><trkpt lat="42.14192343960174" lon="-1.5863091445145734"><ele>255.0</ele><time>2026-03-31T09:48:05Z</time></trkpt><trkpt lat="42.14214798270759" lon="-1.5863631433512049"><ele>255.0</ele><time>2026-03-31T09:48:06Z</time></trkpt><trkpt lat="42.142368657592904" lon="-1.5864215361998242"><ele>255.0</ele><time>2026-03-31T09:48:07Z</time></trkpt><trkpt lat="42.142589696085594" lon="-1.586484626820679"><ele>255.5</ele><time>2026-03-31T09:48:08Z</time></trkpt><trkpt lat="42.14281786518018" lon="-1.5865487612933573"><ele>256.0</ele><time>2026-03-31T09:48:09Z</time></trkpt><trkpt lat="42.143034842121274" lon="-1.5866074821160283"><ele>256.0</ele><time>2026-03-31T09:48:10Z</time></trkpt><trkpt lat="42.14325635197109" lon="-1.5866718124514403"><ele>256.0</ele><time>2026-03-31T09:48:11Z</time></trkpt><trkpt lat="42.14347634578343" lon="-1.5867362597241967"><ele>256.0</ele><time>2026-03-31T09:48:12Z</time></trkpt><trkpt lat="42.14369932545295" lon="-1.586794600921488"><ele>256.0</ele><time>2026-03-31T09:48:13Z</time></trkpt><trkpt lat="42.14391978074182" lon="-1.5868544277029026"><ele>256.0</ele><time>2026-03-31T09:48:14Z</time></trkpt><trkpt lat="42.1441472461701" lon="-1.5869213562356927"><ele>256.0</ele><time>2026-03-31T09:48:15Z</time></trkpt><trkpt lat="42.144370526557665" lon="-1.5869861673080565"><ele>256.0</ele><time>2026-03-31T09:48:16Z</time></trkpt><trkpt lat="42.14460372239179" lon="-1.5870501217739557"><ele>256.0</ele><time>2026-03-31T09:48:17Z</time></trkpt><trkpt lat="42.14482587691469" lon="-1.5871099944616285"><ele>255.5</ele><time>2026-03-31T09:48:18Z</time></trkpt><trkpt lat="42.14506218928475" lon="-1.5871767502612468"><ele>255.0</ele><time>2026-03-31T09:48:19Z</time></trkpt><trkpt lat="42.14529447074235" lon="-1.5872391836569575"><ele>255.0</ele><time>2026-03-31T09:48:20Z</time></trkpt><trkpt lat="42.14551894973436" lon="-1.587303269604701"><ele>255.0</ele><time>2026-03-31T09:48:21Z</time></trkpt><trkpt lat="42.145748769512565" lon="-1.587365140758173"><ele>256.0</ele><time>2026-03-31T09:48:22Z</time></trkpt><trkpt lat="42.14597678616247" lon="-1.5874257277531973"><ele>257.0</ele><time>2026-03-31T09:48:23Z</time></trkpt><trkpt lat="42.1462054122666" lon="-1.5874921196331975"><ele>257.0</ele><time>2026-03-31T09:48:24Z</time></trkpt><trkpt lat="42.14643328453844" lon="-1.5875583132389666"><ele>257.0</ele><time>2026-03-31T09:48:25Z</time></trkpt><trkpt lat="42.14665802500289" lon="-1.5876177037026862"><ele>257.5</ele><time>2026-03-31T09:48:26Z</time></trkpt><trkpt lat="42.14688483050132" lon="-1.5876832481308545"><ele>258.0</ele><time>2026-03-31T09:48:27Z</time></trkpt><trkpt lat="42.147112759285676" lon="-1.5877484725375037"><ele>258.0</ele><time>2026-03-31T09:48:28Z</time></trkpt><trkpt lat="42.147344250896964" lon="-1.5878098471261608"><ele>258.0</ele><time>2026-03-31T09:48:29Z</time></trkpt><trkpt lat="42.14757326447505" lon="-1.5878726687942872"><ele>257.5</ele><time>2026-03-31T09:48:30Z</time></trkpt><trkpt lat="42.147801772955596" lon="-1.5879356970402967"><ele>257.0</ele><time>2026-03-31T09:48:31Z</time></trkpt><trkpt lat="42.148030092133766" lon="-1.587998200099824"><ele>256.5</ele><time>2026-03-31T09:48:32Z</time></trkpt><trkpt lat="42.14825901459757" lon="-1.5880594353653423"><ele>256.0</ele><time>2026-03-31T09:48:33Z</time></trkpt><trkpt lat="42.14848695552616" lon="-1.5881224404457124"><ele>256.0</ele><time>2026-03-31T09:48:34Z</time></trkpt><trkpt lat="42.14871140170837" lon="-1.5881859557221192"><ele>256.0</ele><time>2026-03-31T09:48:35Z</time></trkpt><trkpt lat="42.148930521670444" lon="-1.5882467257512383"><ele>255.66666666666666</ele><time>2026-03-31T09:48:36Z</time></trkpt><trkpt lat="42.14914617988554" lon="-1.5883048484139974"><ele>255.33333333333331</ele><time>2026-03-31T09:48:37Z</time></trkpt><trkpt lat="42.14936291307156" lon="-1.5883674834714214"><ele>255.0</ele><time>2026-03-31T09:48:38Z</time></trkpt><trkpt lat="42.14957747149738" lon="-1.588428789466458"><ele>255.0</ele><time>2026-03-31T09:48:39Z</time></trkpt><trkpt lat="42.14979048542874" lon="-1.588483962938708"><ele>255.0</ele><time>2026-03-31T09:48:40Z</time></trkpt><trkpt lat="42.15000455290377" lon="-1.5885456452515854"><ele>255.0</ele><time>2026-03-31T09:48:41Z</time></trkpt><trkpt lat="42.15022179200891" lon="-1.5886099180490336"><ele>255.0</ele><time>2026-03-31T09:48:42Z</time></trkpt><trkpt lat="42.15043768699307" lon="-1.5886654135017615"><ele>255.0</ele><time>2026-03-31T09:48:43Z</time></trkpt><trkpt lat="42.15065381013022" lon="-1.5887186217416915"><ele>255.0</ele><time>2026-03-31T09:48:44Z</time></trkpt><trkpt lat="42.150872934028264" lon="-1.5887894740612154"><ele>255.0</ele><time>2026-03-31T09:48:45Z</time></trkpt><trkpt lat="42.15108905170834" lon="-1.5888563307358368"><ele>255.0</ele><time>2026-03-31T09:48:46Z</time></trkpt><trkpt lat="42.15131029404018" lon="-1.5889085233186384"><ele>255.0</ele><time>2026-03-31T09:48:47Z</time></trkpt><trkpt lat="42.15153921289952" lon="-1.588964880000682"><ele>256.0</ele><time>2026-03-31T09:48:48Z</time></trkpt><trkpt lat="42.15177040216733" lon="-1.5890256976947954"><ele>257.0</ele><time>2026-03-31T09:48:49Z</time></trkpt><trkpt lat="42.15198583626806" lon="-1.5890888019944065"><ele>257.0</ele><time>2026-03-31T09:48:50Z</time></trkpt><trkpt lat="42.152200840554656" lon="-1.5891473635630096"><ele>257.0</ele><time>2026-03-31T09:48:51Z</time></trkpt><trkpt lat="42.152413469258825" lon="-1.589205210167089"><ele>257.0</ele><time>2026-03-31T09:48:52Z</time></trkpt><trkpt lat="42.15262395200665" lon="-1.5892642735889286"><ele>257.0</ele><time>2026-03-31T09:48:53Z</time></trkpt><trkpt lat="42.152839873618305" lon="-1.5893249418985795"><ele>257.0</ele><time>2026-03-31T09:48:54Z</time></trkpt><trkpt lat="42.15306130479887" lon="-1.589385828086766"><ele>257.0</ele><time>2026-03-31T09:48:55Z</time></trkpt><trkpt lat="42.15328231187223" lon="-1.5894462622123362"><ele>257.0</ele><time>2026-03-31T09:48:56Z</time></trkpt><trkpt lat="42.15350058908094" lon="-1.5895057123487644"><ele>257.0</ele><time>2026-03-31T09:48:57Z</time></trkpt><trkpt lat="42.153718970332676" lon="-1.589566194191091"><ele>257.0</ele><time>2026-03-31T09:48:58Z</time></trkpt><trkpt lat="42.15393548268377" lon="-1.5896274926065506"><ele>256.6666666666667</ele><time>2026-03-31T09:48:59Z</time></trkpt><trkpt lat="42.154153276933116" lon="-1.5896901741211136"><ele>256.3333333333333</ele><time>2026-03-31T09:49:00Z</time></trkpt><trkpt lat="42.15437142178415" lon="-1.5897531950152572"><ele>256.0</ele><time>2026-03-31T09:49:01Z</time></trkpt><trkpt lat="42.1545901655273" lon="-1.5898142040678225"><ele>256.0</ele><time>2026-03-31T09:49:02Z</time></trkpt><trkpt lat="42.15480496289598" lon="-1.5898735857596273"><ele>256.0</ele><time>2026-03-31T09:49:03Z</time></trkpt><trkpt lat="42.15501624404329" lon="-1.589933036469185"><ele>256.0</ele><time>2026-03-31T09:49:04Z</time></trkpt><trkpt lat="42.155224340044974" lon="-1.5899928692772805"><ele>256.0</ele><time>2026-03-31T09:49:05Z</time></trkpt><trkpt lat="42.15543012047035" lon="-1.5900564973872233"><ele>256.0</ele><time>2026-03-31T09:49:06Z</time></trkpt><trkpt lat="42.15563213301745" lon="-1.5901218891406421"><ele>256.0</ele><time>2026-03-31T09:49:07Z</time></trkpt><trkpt lat="42.15583394621569" lon="-1.5901958021252358"><ele>256.0</ele><time>2026-03-31T09:49:08Z</time></trkpt><trkpt lat="42.15603445230811" lon="-1.590278468892527"><ele>256.0</ele><time>2026-03-31T09:49:09Z</time></trkpt><trkpt lat="42.156232887799895" lon="-1.5903752466909133"><ele>256.0</ele><time>2026-03-31T09:49:10Z</time></trkpt><trkpt lat="42.15642878727444" lon="-1.5904828599289629"><ele>256.3333333333333</ele><time>2026-03-31T09:49:11Z</time></trkpt><trkpt lat="42.15660948433574" lon="-1.5906020039614555"><ele>256.6666666666667</ele><time>2026-03-31T09:49:12Z</time></trkpt><trkpt lat="42.156782306091955" lon="-1.590717008800571"><ele>257.0</ele><time>2026-03-31T09:49:13Z</time></trkpt><trkpt lat="42.1569574349694" lon="-1.590831312022734"><ele>257.0</ele><time>2026-03-31T09:49:14Z</time></trkpt><trkpt lat="42.157123200045916" lon="-1.5909496193716837"><ele>257.0</ele><time>2026-03-31T09:49:15Z</time></trkpt><trkpt lat="42.157289461456564" lon="-1.5910796210258158"><ele>257.0</ele><time>2026-03-31T09:49:16Z</time></trkpt><trkpt lat="42.157453888106886" lon="-1.591208036350103"><ele>257.0</ele><time>2026-03-31T09:49:17Z</time></trkpt><trkpt lat="42.15759849458423" lon="-1.5913260768317599"><ele>257.0</ele><time>2026-03-31T09:49:18Z</time></trkpt><trkpt lat="42.15774055096047" lon="-1.5914474406961352"><ele>257.0</ele><time>2026-03-31T09:49:19Z</time></trkpt><trkpt lat="42.15787210177282" lon="-1.5915676915655748"><ele>257.0</ele><time>2026-03-31T09:49:20Z</time></trkpt><trkpt lat="42.15798357865655" lon="-1.59168580590251"><ele>257.0</ele><time>2026-03-31T09:49:21Z</time></trkpt><trkpt lat="42.15809924458682" lon="-1.5918068617233572"><ele>257.0</ele><time>2026-03-31T09:49:22Z</time></trkpt><trkpt lat="42.15821568872789" lon="-1.5918961578356974"><ele>257.0</ele><time>2026-03-31T09:49:23Z</time></trkpt><trkpt lat="42.158303131792266" lon="-1.59199172507661"><ele>257.0</ele><time>2026-03-31T09:49:24Z</time></trkpt><trkpt lat="42.15844466418344" lon="-1.5918999586017861"><ele>257.0</ele><time>2026-03-31T09:49:25Z</time></trkpt><trkpt lat="42.15855538508116" lon="-1.5918188873885235"><ele>257.0</ele><time>2026-03-31T09:49:26Z</time></trkpt><trkpt lat="42.15865909751656" lon="-1.5917027916171456"><ele>257.0</ele><time>2026-03-31T09:49:27Z</time></trkpt><trkpt lat="42.15875091440582" lon="-1.5915481053834264"><ele>257.0</ele><time>2026-03-31T09:49:28Z</time></trkpt><trkpt lat="42.15885475022729" lon="-1.5913823028341538"><ele>257.0</ele><time>2026-03-31T09:49:29Z</time></trkpt><trkpt lat="42.15897012274573" lon="-1.5912651308300063"><ele>257.0</ele><time>2026-03-31T09:49:30Z</time></trkpt><trkpt lat="42.15911246732489" lon="-1.591193520401631"><ele>256.6666666666667</ele><time>2026-03-31T09:49:31Z</time></trkpt><trkpt lat="42.15928467085396" lon="-1.591158535580665"><ele>256.3333333333333</ele><time>2026-03-31T09:49:32Z</time></trkpt><trkpt lat="42.15947714557273" lon="-1.5911683310062066"><ele>256.0</ele><time>2026-03-31T09:49:33Z</time></trkpt><trkpt lat="42.15967674452387" lon="-1.5912185931364207"><ele>256.3333333333333</ele><time>2026-03-31T09:49:34Z</time></trkpt><trkpt lat="42.15986864049163" lon="-1.5912928287923302"><ele>256.6666666666667</ele><time>2026-03-31T09:49:35Z</time></trkpt><trkpt lat="42.16006312643197" lon="-1.5913697494996384"><ele>257.0</ele><time>2026-03-31T09:49:36Z</time></trkpt><trkpt lat="42.16026079402927" lon="-1.5914175236973322"><ele>257.0</ele><time>2026-03-31T09:49:37Z</time></trkpt><trkpt lat="42.1604668039137" lon="-1.5914617181772746"><ele>257.0</ele><time>2026-03-31T09:49:38Z</time></trkpt><trkpt lat="42.16066899647004" lon="-1.591532919989073"><ele>257.0</ele><time>2026-03-31T09:49:39Z</time></trkpt><trkpt lat="42.16087371827857" lon="-1.5916047088845573"><ele>257.0</ele><time>2026-03-31T09:49:40Z</time></trkpt><trkpt lat="42.16107832822935" lon="-1.5916601803117405"><ele>257.0</ele><time>2026-03-31T09:49:41Z</time></trkpt><trkpt lat="42.16128000078556" lon="-1.5917060681785276"><ele>257.0</ele><time>2026-03-31T09:49:42Z</time></trkpt><trkpt lat="42.161480115969844" lon="-1.5917617072770311"><ele>256.6666666666667</ele><time>2026-03-31T09:49:43Z</time></trkpt><trkpt lat="42.16167770693098" lon="-1.5918238277815384"><ele>256.3333333333333</ele><time>2026-03-31T09:49:44Z</time></trkpt><trkpt lat="42.16187563457394" lon="-1.5918868534277917"><ele>256.0</ele><time>2026-03-31T09:49:45Z</time></trkpt><trkpt lat="42.16207920867963" lon="-1.5919431460229188"><ele>256.0</ele><time>2026-03-31T09:49:46Z</time></trkpt><trkpt lat="42.16228306264845" lon="-1.591994427675663"><ele>256.0</ele><time>2026-03-31T09:49:47Z</time></trkpt><trkpt lat="42.16249015976486" lon="-1.5920517896069448"><ele>256.0</ele><time>2026-03-31T09:49:48Z</time></trkpt><trkpt lat="42.162694974716125" lon="-1.592114552211613"><ele>256.3333333333333</ele><time>2026-03-31T09:49:49Z</time></trkpt><trkpt lat="42.16289641019101" lon="-1.5921759411241927"><ele>256.6666666666667</ele><time>2026-03-31T09:49:50Z</time></trkpt><trkpt lat="42.16309653365366" lon="-1.5922302082845152"><ele>257.0</ele><time>2026-03-31T09:49:51Z</time></trkpt><trkpt lat="42.16329241945921" lon="-1.5922806613745042"><ele>257.0</ele><time>2026-03-31T09:49:52Z</time></trkpt><trkpt lat="42.16348538037015" lon="-1.5923355286018386"><ele>257.0</ele><time>2026-03-31T09:49:53Z</time></trkpt><trkpt lat="42.1636562962072" lon="-1.592386700003806"><ele>257.0</ele><time>2026-03-31T09:49:54Z</time></trkpt><trkpt lat="42.16380770657705" lon="-1.592432246553397"><ele>257.0</ele><time>2026-03-31T09:49:55Z</time></trkpt><trkpt lat="42.163933149270676" lon="-1.5924685040116773"><ele>257.0</ele><time>2026-03-31T09:49:56Z</time></trkpt><trkpt lat="42.164041556550885" lon="-1.592499087878364"><ele>257.0</ele><time>2026-03-31T09:49:57Z</time></trkpt><trkpt lat="42.16412496169635" lon="-1.59252211498114"><ele>257.0</ele><time>2026-03-31T09:49:58Z</time></trkpt><trkpt lat="42.16421765875339" lon="-1.5925093712011584"><ele>257.0</ele><time>2026-03-31T09:50:00Z</time></trkpt><trkpt lat="42.16420138884663" lon="-1.592383983571441"><ele>256.75</ele><time>2026-03-31T09:50:02Z</time></trkpt><trkpt lat="42.16424725979755" lon="-1.5921868558686063"><ele>256.5</ele><time>2026-03-31T09:50:04Z</time></trkpt><trkpt lat="42.16429558307828" lon="-1.5920336767580756"><ele>256.25</ele><time>2026-03-31T09:50:05Z</time></trkpt><trkpt lat="42.164340948355495" lon="-1.5918448699989223"><ele>256.0</ele><time>2026-03-31T09:50:06Z</time></trkpt><trkpt lat="42.1643770256448" lon="-1.5916808625383225"><ele>256.0</ele><time>2026-03-31T09:50:07Z</time></trkpt><trkpt lat="42.16441558236325" lon="-1.5915408327940759"><ele>256.0</ele><time>2026-03-31T09:50:08Z</time></trkpt><trkpt lat="42.16445285671084" lon="-1.5913851051967127"><ele>256.0</ele><time>2026-03-31T09:50:09Z</time></trkpt><trkpt lat="42.16448931321412" lon="-1.5912151880433698"><ele>256.0</ele><time>2026-03-31T09:50:10Z</time></trkpt><trkpt lat="42.16452593688192" lon="-1.5910351665721336"><ele>256.0</ele><time>2026-03-31T09:50:11Z</time></trkpt><trkpt lat="42.16452557374062" lon="-1.590857725568331"><ele>256.0</ele><time>2026-03-31T09:50:12Z</time></trkpt><trkpt lat="42.16452564621356" lon="-1.590702117215657"><ele>256.0</ele><time>2026-03-31T09:50:13Z</time></trkpt><trkpt lat="42.164521759040824" lon="-1.5905496845700204"><ele>256.0</ele><time>2026-03-31T09:50:14Z</time></trkpt><trkpt lat="42.16452572590872" lon="-1.5903884558360384"><ele>256.0</ele><time>2026-03-31T09:50:15Z</time></trkpt><trkpt lat="42.16452246705759" lon="-1.5902124477738455"><ele>256.0</ele><time>2026-03-31T09:50:16Z</time></trkpt><trkpt lat="42.16451870805444" lon="-1.5900269216111764"><ele>256.0</ele><time>2026-03-31T09:50:17Z</time></trkpt><trkpt lat="42.164515073893995" lon="-1.5898338973121182"><ele>256.0</ele><time>2026-03-31T09:50:18Z</time></trkpt><trkpt lat="42.16451538475839" lon="-1.5896308041614753"><ele>256.3333333333333</ele><time>2026-03-31T09:50:19Z</time></trkpt><trkpt lat="42.16450879055448" lon="-1.5894124536319856"><ele>256.6666666666667</ele><time>2026-03-31T09:50:20Z</time></trkpt><trkpt lat="42.164496846232346" lon="-1.5891699295746278"><ele>257.0</ele><time>2026-03-31T09:50:21Z</time></trkpt><trkpt lat="42.164482225223594" lon="-1.588937200167912"><ele>257.0</ele><time>2026-03-31T09:50:22Z</time></trkpt><trkpt lat="42.1644773179366" lon="-1.5887250669415889"><ele>257.0</ele><time>2026-03-31T09:50:23Z</time></trkpt><trkpt lat="42.16447438592084" lon="-1.5885083370236093"><ele>257.0</ele><time>2026-03-31T09:50:24Z</time></trkpt><trkpt lat="42.1644716656207" lon="-1.5882919864738412"><ele>257.33333333333337</ele><time>2026-03-31T09:50:25Z</time></trkpt><trkpt lat="42.164485167727264" lon="-1.588075376283286"><ele>257.6666666666667</ele><time>2026-03-31T09:50:26Z</time></trkpt><trkpt lat="42.164483122055046" lon="-1.5878581030304064"><ele>258.0</ele><time>2026-03-31T09:50:27Z</time></trkpt><trkpt lat="42.164475238122115" lon="-1.587637125085373"><ele>258.0</ele><time>2026-03-31T09:50:28Z</time></trkpt><trkpt lat="42.16447099767952" lon="-1.5874102968151933"><ele>258.0</ele><time>2026-03-31T09:50:29Z</time></trkpt><trkpt lat="42.164468529693956" lon="-1.5871819878349493"><ele>258.0</ele><time>2026-03-31T09:50:30Z</time></trkpt><trkpt lat="42.16444588377889" lon="-1.5869527561291576"><ele>258.0</ele><time>2026-03-31T09:50:31Z</time></trkpt><trkpt lat="42.164439011203925" lon="-1.5867291429558392"><ele>258.0</ele><time>2026-03-31T09:50:32Z</time></trkpt><trkpt lat="42.16443210925088" lon="-1.5865045738457835"><ele>258.0</ele><time>2026-03-31T09:50:33Z</time></trkpt><trkpt lat="42.164425166484016" lon="-1.5862745030117835"><ele>258.0</ele><time>2026-03-31T09:50:34Z</time></trkpt><trkpt lat="42.164419482409095" lon="-1.5860411688117695"><ele>258.0</ele><time>2026-03-31T09:50:35Z</time></trkpt><trkpt lat="42.16441388674978" lon="-1.585805697446691"><ele>258.0</ele><time>2026-03-31T09:50:36Z</time></trkpt><trkpt lat="42.164408480153185" lon="-1.585567054347198"><ele>258.3333333333333</ele><time>2026-03-31T09:50:37Z</time></trkpt><trkpt lat="42.16440000002267" lon="-1.585328777772932"><ele>258.66666666666663</ele><time>2026-03-31T09:50:38Z</time></trkpt><trkpt lat="42.16440794821001" lon="-1.5850909526740498"><ele>259.0</ele><time>2026-03-31T09:50:39Z</time></trkpt><trkpt lat="42.16440428308" lon="-1.5848522698604464"><ele>259.0</ele><time>2026-03-31T09:50:40Z</time></trkpt><trkpt lat="42.16440822391098" lon="-1.5846135992130532"><ele>259.0</ele><time>2026-03-31T09:50:41Z</time></trkpt><trkpt lat="42.16442956158861" lon="-1.5843697705158413"><ele>259.0</ele><time>2026-03-31T09:50:42Z</time></trkpt><trkpt lat="42.16447092160082" lon="-1.5841302347741075"><ele>259.0</ele><time>2026-03-31T09:50:43Z</time></trkpt><trkpt lat="42.16452044547" lon="-1.5838918458485591"><ele>259.0</ele><time>2026-03-31T09:50:44Z</time></trkpt><trkpt lat="42.16455351965637" lon="-1.583652623956509"><ele>259.0</ele><time>2026-03-31T09:50:45Z</time></trkpt><trkpt lat="42.16458819734104" lon="-1.5834091964992367"><ele>259.0</ele><time>2026-03-31T09:50:46Z</time></trkpt><trkpt lat="42.16462826757664" lon="-1.583164349761189"><ele>259.0</ele><time>2026-03-31T09:50:47Z</time></trkpt><trkpt lat="42.16466977631376" lon="-1.5829196022756342"><ele>259.0</ele><time>2026-03-31T09:50:48Z</time></trkpt><trkpt lat="42.16469040511554" lon="-1.5826628029767038"><ele>258.0</ele><time>2026-03-31T09:50:49Z</time></trkpt><trkpt lat="42.16476170213196" lon="-1.5821621093624905"><ele>257.0</ele><time>2026-03-31T09:50:51Z</time></trkpt><trkpt lat="42.16480999153996" lon="-1.5819190461096446"><ele>257.0</ele><time>2026-03-31T09:50:52Z</time></trkpt><trkpt lat="42.16484568444998" lon="-1.5816769232897276"><ele>257.0</ele><time>2026-03-31T09:50:53Z</time></trkpt><trkpt lat="42.16488189630176" lon="-1.5814312508323716"><ele>257.0</ele><time>2026-03-31T09:50:54Z</time></trkpt><trkpt lat="42.16491355384899" lon="-1.5811846604669553"><ele>257.33333333333337</ele><time>2026-03-31T09:50:55Z</time></trkpt><trkpt lat="42.164935642796294" lon="-1.5809395553576318"><ele>257.6666666666667</ele><time>2026-03-31T09:50:56Z</time></trkpt><trkpt lat="42.16497193160289" lon="-1.5806965472183476"><ele>258.0</ele><time>2026-03-31T09:50:57Z</time></trkpt><trkpt lat="42.165021437084455" lon="-1.5804644215237709"><ele>258.6666666666667</ele><time>2026-03-31T09:50:58Z</time></trkpt><trkpt lat="42.165054236293024" lon="-1.5802316762305637"><ele>259.33333333333337</ele><time>2026-03-31T09:50:59Z</time></trkpt><trkpt lat="42.16508552929704" lon="-1.5800065405562818"><ele>260.0</ele><time>2026-03-31T09:51:00Z</time></trkpt><trkpt lat="42.16512002889816" lon="-1.5797834291332236"><ele>260.0</ele><time>2026-03-31T09:51:01Z</time></trkpt><trkpt lat="42.16515650631255" lon="-1.5795642028827688"><ele>260.0</ele><time>2026-03-31T09:51:02Z</time></trkpt><trkpt lat="42.16518436222434" lon="-1.5793446982047792"><ele>260.0</ele><time>2026-03-31T09:51:03Z</time></trkpt><trkpt lat="42.16521724746855" lon="-1.5791300470512222"><ele>260.0</ele><time>2026-03-31T09:51:04Z</time></trkpt><trkpt lat="42.16524420164322" lon="-1.578932856449964"><ele>260.0</ele><time>2026-03-31T09:51:05Z</time></trkpt><trkpt lat="42.16526960144774" lon="-1.5787540271955602"><ele>260.0</ele><time>2026-03-31T09:51:06Z</time></trkpt><trkpt lat="42.16527503418275" lon="-1.5785961423575012"><ele>260.0</ele><time>2026-03-31T09:51:07Z</time></trkpt><trkpt lat="42.16530820676055" lon="-1.5784875725925285"><ele>260.0</ele><time>2026-03-31T09:51:08Z</time></trkpt><trkpt lat="42.16530267415391" lon="-1.5783907557649541"><ele>260.0</ele><time>2026-03-31T09:51:09Z</time></trkpt><trkpt lat="42.165237446253926" lon="-1.5783087753438365"><ele>260.0</ele><time>2026-03-31T09:51:10Z</time></trkpt><trkpt lat="42.16515081017759" lon="-1.5781774222703535"><ele>260.0</ele><time>2026-03-31T09:51:11Z</time></trkpt><trkpt lat="42.165039076074336" lon="-1.5780068952480386"><ele>259.6666666666667</ele><time>2026-03-31T09:51:12Z</time></trkpt><trkpt lat="42.16492385097874" lon="-1.5778316129237209"><ele>259.3333333333333</ele><time>2026-03-31T09:51:13Z</time></trkpt><trkpt lat="42.164814944948155" lon="-1.5776674046160823"><ele>259.0</ele><time>2026-03-31T09:51:14Z</time></trkpt><trkpt lat="42.164699655682725" lon="-1.577497063119874"><ele>259.0</ele><time>2026-03-31T09:51:15Z</time></trkpt><trkpt lat="42.16458255617414" lon="-1.5773245689853688"><ele>259.0</ele><time>2026-03-31T09:51:16Z</time></trkpt><trkpt lat="42.16446956902414" lon="-1.5771587163237208"><ele>259.0</ele><time>2026-03-31T09:51:17Z</time></trkpt><trkpt lat="42.16436306569266" lon="-1.5770023811324905"><ele>260.66666666666663</ele><time>2026-03-31T09:51:18Z</time></trkpt><trkpt lat="42.16427201258448" lon="-1.5768426684835952"><ele>262.3333333333333</ele><time>2026-03-31T09:51:19Z</time></trkpt><trkpt lat="42.1642275514584" lon="-1.5766539480026687"><ele>264.0</ele><time>2026-03-31T09:51:20Z</time></trkpt><trkpt lat="42.16419446547342" lon="-1.5764412517123256"><ele>264.0</ele><time>2026-03-31T09:51:21Z</time></trkpt><trkpt lat="42.16413537472681" lon="-1.576219758780618"><ele>264.0</ele><time>2026-03-31T09:51:22Z</time></trkpt><trkpt lat="42.164078138224646" lon="-1.576015094992226"><ele>264.0</ele><time>2026-03-31T09:51:23Z</time></trkpt><trkpt lat="42.16400413525931" lon="-1.5758477141295781"><ele>263.5</ele><time>2026-03-31T09:51:24Z</time></trkpt><trkpt lat="42.1639092399469" lon="-1.5757070139768217"><ele>263.0</ele><time>2026-03-31T09:51:25Z</time></trkpt><trkpt lat="42.16381771729472" lon="-1.5755430417994953"><ele>262.5</ele><time>2026-03-31T09:51:26Z</time></trkpt><trkpt lat="42.16375690805773" lon="-1.5753624738197198"><ele>262.0</ele><time>2026-03-31T09:51:27Z</time></trkpt><trkpt lat="42.16373300415758" lon="-1.5751538754770271"><ele>263.75</ele><time>2026-03-31T09:51:28Z</time></trkpt><trkpt lat="42.1636978695899" lon="-1.5749674064174874"><ele>265.5</ele><time>2026-03-31T09:51:29Z</time></trkpt><trkpt lat="42.16368779370227" lon="-1.5747971294710086"><ele>267.25</ele><time>2026-03-31T09:51:30Z</time></trkpt><trkpt lat="42.1636771463412" lon="-1.5746531216425104"><ele>269.0</ele><time>2026-03-31T09:51:31Z</time></trkpt><trkpt lat="42.16368493570572" lon="-1.5745215545864866"><ele>270.4</ele><time>2026-03-31T09:51:32Z</time></trkpt><trkpt lat="42.16368195413453" lon="-1.5744038051293676"><ele>271.79999999999995</ele><time>2026-03-31T09:51:33Z</time></trkpt><trkpt lat="42.163691743301364" lon="-1.5742805065805734"><ele>273.20000000000005</ele><time>2026-03-31T09:51:34Z</time></trkpt><trkpt lat="42.16371554646668" lon="-1.5741564654290512"><ele>274.6</ele><time>2026-03-31T09:51:35Z</time></trkpt><trkpt lat="42.16372551208254" lon="-1.5740310077461952"><ele>276.0</ele><time>2026-03-31T09:51:36Z</time></trkpt><trkpt lat="42.16375191390767" lon="-1.5739252024116404"><ele>276.0</ele><time>2026-03-31T09:51:37Z</time></trkpt><trkpt lat="42.16377939457287" lon="-1.5738206943968007"><ele>276.0</ele><time>2026-03-31T09:51:38Z</time></trkpt><trkpt lat="42.163824119207156" lon="-1.5737228329324462"><ele>276.0</ele><time>2026-03-31T09:51:39Z</time></trkpt><trkpt lat="42.16385604841676" lon="-1.573614278779299"><ele>276.0</ele><time>2026-03-31T09:51:40Z</time></trkpt><trkpt lat="42.163878599937746" lon="-1.573491438827101"><ele>276.0</ele><time>2026-03-31T09:51:41Z</time></trkpt><trkpt lat="42.16392794977753" lon="-1.57335165574848"><ele>276.25</ele><time>2026-03-31T09:51:42Z</time></trkpt><trkpt lat="42.164003626333106" lon="-1.573174744546114"><ele>276.5</ele><time>2026-03-31T09:51:43Z</time></trkpt><trkpt lat="42.164092211402206" lon="-1.5729777959394646"><ele>276.75</ele><time>2026-03-31T09:51:44Z</time></trkpt><trkpt lat="42.16415584193681" lon="-1.572834173578206"><ele>277.0</ele><time>2026-03-31T09:51:45Z</time></trkpt><trkpt lat="42.164202115325025" lon="-1.572683029474804"><ele>277.25</ele><time>2026-03-31T09:51:46Z</time></trkpt><trkpt lat="42.16423227268074" lon="-1.572518125148461"><ele>277.5</ele><time>2026-03-31T09:51:47Z</time></trkpt><trkpt lat="42.164185577237625" lon="-1.5723482217865878"><ele>277.75</ele><time>2026-03-31T09:51:48Z</time></trkpt><trkpt lat="42.16412734760406" lon="-1.572180986839415"><ele>278.0</ele><time>2026-03-31T09:51:49Z</time></trkpt><trkpt lat="42.1640820296146" lon="-1.5719735424120889"><ele>278.6666666666667</ele><time>2026-03-31T09:51:50Z</time></trkpt><trkpt lat="42.16406660167192" lon="-1.5717514118781313"><ele>279.3333333333333</ele><time>2026-03-31T09:51:51Z</time></trkpt><trkpt lat="42.164072242898015" lon="-1.5715487136040796"><ele>280.0</ele><time>2026-03-31T09:51:52Z</time></trkpt><trkpt lat="42.16410479567702" lon="-1.5713281503681629"><ele>281.0</ele><time>2026-03-31T09:51:53Z</time></trkpt><trkpt lat="42.16413726364624" lon="-1.5710900018459408"><ele>282.0</ele><time>2026-03-31T09:51:54Z</time></trkpt><trkpt lat="42.164146146518604" lon="-1.570857752712943"><ele>283.0</ele><time>2026-03-31T09:51:55Z</time></trkpt><trkpt lat="42.164137999353606" lon="-1.5706472440438242"><ele>283.0</ele><time>2026-03-31T09:51:56Z</time></trkpt><trkpt lat="42.1641239886293" lon="-1.5704306220500723"><ele>283.0</ele><time>2026-03-31T09:51:57Z</time></trkpt><trkpt lat="42.164132207372546" lon="-1.570220226775923"><ele>283.0</ele><time>2026-03-31T09:51:58Z</time></trkpt><trkpt lat="42.164132654479175" lon="-1.570009561372604"><ele>283.66666666666663</ele><time>2026-03-31T09:51:59Z</time></trkpt><trkpt lat="42.16416277452103" lon="-1.5697918472460957"><ele>284.3333333333333</ele><time>2026-03-31T09:52:00Z</time></trkpt><trkpt lat="42.1642347930879" lon="-1.5695637249353351"><ele>285.0</ele><time>2026-03-31T09:52:01Z</time></trkpt><trkpt lat="42.16432982137688" lon="-1.5693313170520882"><ele>285.3333333333333</ele><time>2026-03-31T09:52:02Z</time></trkpt><trkpt lat="42.164442666120024" lon="-1.5691291405429455"><ele>285.66666666666663</ele><time>2026-03-31T09:52:03Z</time></trkpt><trkpt lat="42.16456165081017" lon="-1.5689462843025983"><ele>286.0</ele><time>2026-03-31T09:52:04Z</time></trkpt><trkpt lat="42.16466027249662" lon="-1.5687870958069527"><ele>286.25</ele><time>2026-03-31T09:52:05Z</time></trkpt><trkpt lat="42.16475001451289" lon="-1.5686418637530464"><ele>286.5</ele><time>2026-03-31T09:52:06Z</time></trkpt><trkpt lat="42.16483916580898" lon="-1.5684846019817082"><ele>286.75</ele><time>2026-03-31T09:52:07Z</time></trkpt><trkpt lat="42.16492879886018" lon="-1.568320259969142"><ele>287.0</ele><time>2026-03-31T09:52:08Z</time></trkpt><trkpt lat="42.165018127573966" lon="-1.568166152198076"><ele>288.0</ele><time>2026-03-31T09:52:09Z</time></trkpt><trkpt lat="42.1651073155104" lon="-1.5680184273975222"><ele>289.0</ele><time>2026-03-31T09:52:10Z</time></trkpt><trkpt lat="42.16519711062503" lon="-1.5678659625835953"><ele>290.0</ele><time>2026-03-31T09:52:11Z</time></trkpt><trkpt lat="42.1652862867048" lon="-1.5677092866038054"><ele>291.0</ele><time>2026-03-31T09:52:12Z</time></trkpt><trkpt lat="42.165379625532836" lon="-1.567549288795043"><ele>291.0</ele><time>2026-03-31T09:52:13Z</time></trkpt><trkpt lat="42.16547211365885" lon="-1.5673900106270608"><ele>291.0</ele><time>2026-03-31T09:52:14Z</time></trkpt><trkpt lat="42.16556675206917" lon="-1.5672318348639376"><ele>291.0</ele><time>2026-03-31T09:52:15Z</time></trkpt><trkpt lat="42.16566073748884" lon="-1.5670657341026137"><ele>291.6666666666667</ele><time>2026-03-31T09:52:16Z</time></trkpt><trkpt lat="42.16575437695286" lon="-1.56690100688478"><ele>292.33333333333337</ele><time>2026-03-31T09:52:17Z</time></trkpt><trkpt lat="42.165846436684475" lon="-1.566738389877552"><ele>293.0</ele><time>2026-03-31T09:52:18Z</time></trkpt><trkpt lat="42.16593656452828" lon="-1.5665775354288833"><ele>293.0</ele><time>2026-03-31T09:52:19Z</time></trkpt><trkpt lat="42.166024150492" lon="-1.566411509429478"><ele>293.0</ele><time>2026-03-31T09:52:20Z</time></trkpt><trkpt lat="42.16610525768864" lon="-1.5662362620513726"><ele>293.0</ele><time>2026-03-31T09:52:21Z</time></trkpt><trkpt lat="42.166176659488166" lon="-1.566062591296202"><ele>293.25</ele><time>2026-03-31T09:52:22Z</time></trkpt><trkpt lat="42.166250007709294" lon="-1.5658993015138252"><ele>293.5</ele><time>2026-03-31T09:52:23Z</time></trkpt><trkpt lat="42.16632419054583" lon="-1.5657303575769035"><ele>293.75</ele><time>2026-03-31T09:52:24Z</time></trkpt><trkpt lat="42.166400706521735" lon="-1.5655580201051695"><ele>294.0</ele><time>2026-03-31T09:52:25Z</time></trkpt><trkpt lat="42.16648035692307" lon="-1.5653901359127183"><ele>295.3333333333333</ele><time>2026-03-31T09:52:26Z</time></trkpt><trkpt lat="42.16656895475767" lon="-1.5652285983603589"><ele>296.66666666666663</ele><time>2026-03-31T09:52:27Z</time></trkpt><trkpt lat="42.16666934989079" lon="-1.5650724807257455"><ele>298.0</ele><time>2026-03-31T09:52:28Z</time></trkpt><trkpt lat="42.166771004673606" lon="-1.5649115886572798"><ele>298.0</ele><time>2026-03-31T09:52:29Z</time></trkpt><trkpt lat="42.16686352567379" lon="-1.5647456590788844"><ele>298.0</ele><time>2026-03-31T09:52:30Z</time></trkpt><trkpt lat="42.166953782644455" lon="-1.5645817518629297"><ele>298.0</ele><time>2026-03-31T09:52:31Z</time></trkpt><trkpt lat="42.16701852352213" lon="-1.5644010626820959"><ele>298.0</ele><time>2026-03-31T09:52:32Z</time></trkpt><trkpt lat="42.16710332219774" lon="-1.5642395018595434"><ele>298.0</ele><time>2026-03-31T09:52:33Z</time></trkpt><trkpt lat="42.167174649090676" lon="-1.5640646065159718"><ele>298.0</ele><time>2026-03-31T09:52:34Z</time></trkpt><trkpt lat="42.16722757615023" lon="-1.5638800295331994"><ele>298.0</ele><time>2026-03-31T09:52:35Z</time></trkpt><trkpt lat="42.16729414249827" lon="-1.5637086821898358"><ele>298.5</ele><time>2026-03-31T09:52:36Z</time></trkpt><trkpt lat="42.16735763033439" lon="-1.563547609603237"><ele>299.0</ele><time>2026-03-31T09:52:37Z</time></trkpt><trkpt lat="42.16743665447232" lon="-1.5633991129292273"><ele>299.5</ele><time>2026-03-31T09:52:38Z</time></trkpt><trkpt lat="42.167499029407026" lon="-1.5632345531578005"><ele>300.0</ele><time>2026-03-31T09:52:39Z</time></trkpt><trkpt lat="42.167563986328425" lon="-1.5630703911411596"><ele>301.0</ele><time>2026-03-31T09:52:40Z</time></trkpt><trkpt lat="42.16763108093031" lon="-1.5629105786747992"><ele>302.0</ele><time>2026-03-31T09:52:41Z</time></trkpt><trkpt lat="42.167695840799304" lon="-1.5627545318900047"><ele>303.0</ele><time>2026-03-31T09:52:42Z</time></trkpt><trkpt lat="42.167763112466574" lon="-1.5626041379148585"><ele>304.0</ele><time>2026-03-31T09:52:43Z</time></trkpt><trkpt lat="42.1678334584881" lon="-1.5624540985906066"><ele>304.0</ele><time>2026-03-31T09:52:44Z</time></trkpt><trkpt lat="42.167906901662796" lon="-1.5623060194000817"><ele>304.0</ele><time>2026-03-31T09:52:45Z</time></trkpt><trkpt lat="42.1679911175899" lon="-1.5621596073866701"><ele>304.0</ele><time>2026-03-31T09:52:46Z</time></trkpt><trkpt lat="42.16808260977984" lon="-1.5620201556568225"><ele>304.0</ele><time>2026-03-31T09:52:47Z</time></trkpt><trkpt lat="42.168168114062944" lon="-1.5618931787675028"><ele>304.75</ele><time>2026-03-31T09:52:48Z</time></trkpt><trkpt lat="42.16824630238736" lon="-1.5617739437541058"><ele>305.5</ele><time>2026-03-31T09:52:49Z</time></trkpt><trkpt lat="42.16832535182455" lon="-1.561666175595473"><ele>306.25</ele><time>2026-03-31T09:52:50Z</time></trkpt><trkpt lat="42.16841122000676" lon="-1.5615579676894822"><ele>307.0</ele><time>2026-03-31T09:52:51Z</time></trkpt><trkpt lat="42.16850165206889" lon="-1.561448860033528"><ele>307.0</ele><time>2026-03-31T09:52:52Z</time></trkpt><trkpt lat="42.168582949995205" lon="-1.5613491692161887"><ele>307.0</ele><time>2026-03-31T09:52:53Z</time></trkpt><trkpt lat="42.168652965629065" lon="-1.5612672211160514"><ele>307.0</ele><time>2026-03-31T09:52:54Z</time></trkpt><trkpt lat="42.16872213982433" lon="-1.5611944220998732"><ele>307.0</ele><time>2026-03-31T09:52:55Z</time></trkpt><trkpt lat="42.1688010043821" lon="-1.561114159233263"><ele>307.0</ele><time>2026-03-31T09:52:56Z</time></trkpt><trkpt lat="42.168915892746234" lon="-1.5610266735195817"><ele>306.66666666666663</ele><time>2026-03-31T09:52:57Z</time></trkpt><trkpt lat="42.16906705839097" lon="-1.5609428250480106"><ele>306.3333333333333</ele><time>2026-03-31T09:52:58Z</time></trkpt><trkpt lat="42.16922576124435" lon="-1.5608346760688732"><ele>306.0</ele><time>2026-03-31T09:52:59Z</time></trkpt><trkpt lat="42.16939414787376" lon="-1.560733443505614"><ele>306.0</ele><time>2026-03-31T09:53:00Z</time></trkpt><trkpt lat="42.16954936378317" lon="-1.560634845861752"><ele>306.0</ele><time>2026-03-31T09:53:01Z</time></trkpt><trkpt lat="42.169695322907224" lon="-1.5605510534348233"><ele>306.0</ele><time>2026-03-31T09:53:02Z</time></trkpt><trkpt lat="42.16982308354176" lon="-1.5604419572778048"><ele>304.6666666666667</ele><time>2026-03-31T09:53:03Z</time></trkpt><trkpt lat="42.16994745460969" lon="-1.5603243790006147"><ele>303.33333333333337</ele><time>2026-03-31T09:53:04Z</time></trkpt><trkpt lat="42.170043737303594" lon="-1.5601678864395212"><ele>302.0</ele><time>2026-03-31T09:53:05Z</time></trkpt><trkpt lat="42.17011951758496" lon="-1.5599977916006589"><ele>302.0</ele><time>2026-03-31T09:53:06Z</time></trkpt><trkpt lat="42.1701457554032" lon="-1.5598075789159942"><ele>302.0</ele><time>2026-03-31T09:53:07Z</time></trkpt><trkpt lat="42.17015094561854" lon="-1.5596139782130505"><ele>302.0</ele><time>2026-03-31T09:53:08Z</time></trkpt><trkpt lat="42.17014355715858" lon="-1.5594065667641788"><ele>302.0</ele><time>2026-03-31T09:53:09Z</time></trkpt><trkpt lat="42.17013422856687" lon="-1.559185077003407"><ele>301.6666666666667</ele><time>2026-03-31T09:53:10Z</time></trkpt><trkpt lat="42.17012906711575" lon="-1.5589642927736156"><ele>301.3333333333333</ele><time>2026-03-31T09:53:11Z</time></trkpt><trkpt lat="42.170132913270756" lon="-1.5587474123738596"><ele>301.0</ele><time>2026-03-31T09:53:12Z</time></trkpt><trkpt lat="42.17016988676627" lon="-1.558544830082505"><ele>300.3333333333333</ele><time>2026-03-31T09:53:13Z</time></trkpt><trkpt lat="42.170222296280514" lon="-1.5583389338174376"><ele>299.6666666666667</ele><time>2026-03-31T09:53:14Z</time></trkpt><trkpt lat="42.17030649902373" lon="-1.558143299204918"><ele>299.0</ele><time>2026-03-31T09:53:15Z</time></trkpt><trkpt lat="42.170413725540826" lon="-1.5579629968890452"><ele>299.0</ele><time>2026-03-31T09:53:16Z</time></trkpt><trkpt lat="42.17056540370285" lon="-1.5578428632145807"><ele>299.0</ele><time>2026-03-31T09:53:17Z</time></trkpt><trkpt lat="42.17071602488986" lon="-1.5577149467309912"><ele>299.0</ele><time>2026-03-31T09:53:18Z</time></trkpt><trkpt lat="42.170853741208234" lon="-1.5576042019224383"><ele>299.0</ele><time>2026-03-31T09:53:19Z</time></trkpt><trkpt lat="42.17097081807562" lon="-1.5575062151180292"><ele>299.0</ele><time>2026-03-31T09:53:20Z</time></trkpt><trkpt lat="42.171063317843995" lon="-1.5573855923321853"><ele>299.0</ele><time>2026-03-31T09:53:21Z</time></trkpt><trkpt lat="42.17120133082006" lon="-1.5572129987225578"><ele>299.0</ele><time>2026-03-31T09:53:22Z</time></trkpt><trkpt lat="42.17132260817301" lon="-1.557083171872882"><ele>299.0</ele><time>2026-03-31T09:53:23Z</time></trkpt><trkpt lat="42.171431138004834" lon="-1.5569339554091988"><ele>299.0</ele><time>2026-03-31T09:53:24Z</time></trkpt><trkpt lat="42.17154676430355" lon="-1.5567889963350119"><ele>299.6666666666667</ele><time>2026-03-31T09:53:25Z</time></trkpt><trkpt lat="42.17165664286284" lon="-1.5566316190621647"><ele>300.3333333333333</ele><time>2026-03-31T09:53:26Z</time></trkpt><trkpt lat="42.171742528540754" lon="-1.5564546971972157"><ele>301.0</ele><time>2026-03-31T09:53:27Z</time></trkpt><trkpt lat="42.171850474793004" lon="-1.5562993485275025"><ele>300.66666666666663</ele><time>2026-03-31T09:53:28Z</time></trkpt><trkpt lat="42.17192553766112" lon="-1.55611760792563"><ele>300.3333333333333</ele><time>2026-03-31T09:53:29Z</time></trkpt><trkpt lat="42.17199608309939" lon="-1.5559331130919607"><ele>300.0</ele><time>2026-03-31T09:53:30Z</time></trkpt><trkpt lat="42.17206904072341" lon="-1.5557518248368096"><ele>300.0</ele><time>2026-03-31T09:53:31Z</time></trkpt><trkpt lat="42.17214346480189" lon="-1.5555732913280933"><ele>300.0</ele><time>2026-03-31T09:53:32Z</time></trkpt><trkpt lat="42.17222375466318" lon="-1.5553964355663241"><ele>300.0</ele><time>2026-03-31T09:53:33Z</time></trkpt><trkpt lat="42.17230354819188" lon="-1.5552202383623268"><ele>299.3333333333333</ele><time>2026-03-31T09:53:34Z</time></trkpt><trkpt lat="42.17234527458985" lon="-1.5550211921472887"><ele>298.66666666666663</ele><time>2026-03-31T09:53:35Z</time></trkpt><trkpt lat="42.17237331779464" lon="-1.5548250626163154"><ele>298.0</ele><time>2026-03-31T09:53:36Z</time></trkpt><trkpt lat="42.17240191070276" lon="-1.5546222301372954"><ele>297.3333333333333</ele><time>2026-03-31T09:53:37Z</time></trkpt><trkpt lat="42.17243587800631" lon="-1.5544219594158286"><ele>296.6666666666667</ele><time>2026-03-31T09:53:38Z</time></trkpt><trkpt lat="42.172494249712535" lon="-1.5542262991175433"><ele>296.0</ele><time>2026-03-31T09:53:39Z</time></trkpt><trkpt lat="42.172562205233895" lon="-1.5540431658524425"><ele>296.0</ele><time>2026-03-31T09:53:40Z</time></trkpt><trkpt lat="42.172654199905274" lon="-1.5538755199800849"><ele>296.0</ele><time>2026-03-31T09:53:41Z</time></trkpt><trkpt lat="42.17276202764845" lon="-1.553713684755288"><ele>296.0</ele><time>2026-03-31T09:53:42Z</time></trkpt><trkpt lat="42.1728596796457" lon="-1.5535422421897656"><ele>295.5</ele><time>2026-03-31T09:53:43Z</time></trkpt><trkpt lat="42.17294381385474" lon="-1.5533787457645443"><ele>295.0</ele><time>2026-03-31T09:53:44Z</time></trkpt><trkpt lat="42.172998031219635" lon="-1.5532112649348153"><ele>294.5</ele><time>2026-03-31T09:53:45Z</time></trkpt><trkpt lat="42.173050434303974" lon="-1.553047501867922"><ele>294.0</ele><time>2026-03-31T09:53:46Z</time></trkpt><trkpt lat="42.17307983130408" lon="-1.5528702093783482"><ele>294.5</ele><time>2026-03-31T09:53:47Z</time></trkpt><trkpt lat="42.17312258435779" lon="-1.5526962408784786"><ele>295.0</ele><time>2026-03-31T09:53:48Z</time></trkpt><trkpt lat="42.17319102666618" lon="-1.552541546363146"><ele>295.5</ele><time>2026-03-31T09:53:49Z</time></trkpt><trkpt lat="42.17324302523398" lon="-1.552380088911088"><ele>296.0</ele><time>2026-03-31T09:53:50Z</time></trkpt><trkpt lat="42.173322073356914" lon="-1.5522248916624115"><ele>295.5</ele><time>2026-03-31T09:53:51Z</time></trkpt><trkpt lat="42.17334814635466" lon="-1.5520375827734028"><ele>295.0</ele><time>2026-03-31T09:53:52Z</time></trkpt><trkpt lat="42.17335155624567" lon="-1.5518494651697836"><ele>294.5</ele><time>2026-03-31T09:53:53Z</time></trkpt><trkpt lat="42.17336722562893" lon="-1.5516514855462402"><ele>294.0</ele><time>2026-03-31T09:53:54Z</time></trkpt><trkpt lat="42.17340378903638" lon="-1.5514454135073468"><ele>294.0</ele><time>2026-03-31T09:53:55Z</time></trkpt><trkpt lat="42.1734429202608" lon="-1.551251010194616"><ele>294.0</ele><time>2026-03-31T09:53:56Z</time></trkpt><trkpt lat="42.17351515106951" lon="-1.5510878618657749"><ele>294.0</ele><time>2026-03-31T09:53:57Z</time></trkpt><trkpt lat="42.17361013415085" lon="-1.5509366328132441"><ele>294.0</ele><time>2026-03-31T09:53:58Z</time></trkpt><trkpt lat="42.173693208606" lon="-1.5507692069296186"><ele>293.0</ele><time>2026-03-31T09:53:59Z</time></trkpt><trkpt lat="42.17377421076957" lon="-1.5506057427688282"><ele>292.0</ele><time>2026-03-31T09:54:00Z</time></trkpt><trkpt lat="42.173821805611325" lon="-1.5504124277774847"><ele>291.0</ele><time>2026-03-31T09:54:01Z</time></trkpt><trkpt lat="42.173878011310826" lon="-1.550220992736763"><ele>290.0</ele><time>2026-03-31T09:54:02Z</time></trkpt><trkpt lat="42.17391482224537" lon="-1.5500174936689595"><ele>289.25</ele><time>2026-03-31T09:54:03Z</time></trkpt><trkpt lat="42.17394811624742" lon="-1.5498132018603896"><ele>288.5</ele><time>2026-03-31T09:54:04Z</time></trkpt><trkpt lat="42.173998514908895" lon="-1.5496274735012008"><ele>287.75</ele><time>2026-03-31T09:54:05Z</time></trkpt><trkpt lat="42.17408359167373" lon="-1.5494662566047308"><ele>287.0</ele><time>2026-03-31T09:54:06Z</time></trkpt><trkpt lat="42.17419694509733" lon="-1.5493245150319177"><ele>287.0</ele><time>2026-03-31T09:54:07Z</time></trkpt><trkpt lat="42.174328000374175" lon="-1.5491870967373018"><ele>287.0</ele><time>2026-03-31T09:54:08Z</time></trkpt><trkpt lat="42.17446596728831" lon="-1.5490363919505195"><ele>287.0</ele><time>2026-03-31T09:54:09Z</time></trkpt><trkpt lat="42.174594532858954" lon="-1.5488763132563281"><ele>287.0</ele><time>2026-03-31T09:54:10Z</time></trkpt><trkpt lat="42.174722251130895" lon="-1.548717309612999"><ele>287.0</ele><time>2026-03-31T09:54:11Z</time></trkpt><trkpt lat="42.174852921514756" lon="-1.5485740808452277"><ele>287.0</ele><time>2026-03-31T09:54:12Z</time></trkpt><trkpt lat="42.17498067073248" lon="-1.5484335885733937"><ele>286.6666666666667</ele><time>2026-03-31T09:54:13Z</time></trkpt><trkpt lat="42.17509566182579" lon="-1.548285359641117"><ele>286.3333333333333</ele><time>2026-03-31T09:54:14Z</time></trkpt><trkpt lat="42.17520784274572" lon="-1.5481448396766946"><ele>286.0</ele><time>2026-03-31T09:54:15Z</time></trkpt><trkpt lat="42.17532478245505" lon="-1.5480115748408687"><ele>285.25</ele><time>2026-03-31T09:54:16Z</time></trkpt><trkpt lat="42.17537903634432" lon="-1.5478178997373542"><ele>284.5</ele><time>2026-03-31T09:54:17Z</time></trkpt><trkpt lat="42.17545495532325" lon="-1.5476373603266986"><ele>283.75</ele><time>2026-03-31T09:54:18Z</time></trkpt><trkpt lat="42.17552890656574" lon="-1.5474781926568446"><ele>283.0</ele><time>2026-03-31T09:54:19Z</time></trkpt><trkpt lat="42.17564292144898" lon="-1.547347102108492"><ele>283.66666666666663</ele><time>2026-03-31T09:54:20Z</time></trkpt><trkpt lat="42.175788367834706" lon="-1.547248252064692"><ele>284.3333333333333</ele><time>2026-03-31T09:54:21Z</time></trkpt><trkpt lat="42.17590820732423" lon="-1.5471117318226524"><ele>285.0</ele><time>2026-03-31T09:54:22Z</time></trkpt><trkpt lat="42.17595611629036" lon="-1.5468894631032055"><ele>283.0</ele><time>2026-03-31T09:54:23Z</time></trkpt><trkpt lat="42.17599257035694" lon="-1.5466637060485677"><ele>281.0</ele><time>2026-03-31T09:54:24Z</time></trkpt><trkpt lat="42.176032653240675" lon="-1.5464464597470755"><ele>279.0</ele><time>2026-03-31T09:54:25Z</time></trkpt><trkpt lat="42.176079557485245" lon="-1.546241295570053"><ele>278.0</ele><time>2026-03-31T09:54:26Z</time></trkpt><trkpt lat="42.17612499307158" lon="-1.5460426976303376"><ele>277.0</ele><time>2026-03-31T09:54:27Z</time></trkpt><trkpt lat="42.17618007075521" lon="-1.5458345331261447"><ele>276.0</ele><time>2026-03-31T09:54:28Z</time></trkpt><trkpt lat="42.17625663065631" lon="-1.545628787708129"><ele>276.0</ele><time>2026-03-31T09:54:29Z</time></trkpt><trkpt lat="42.17634697163385" lon="-1.5454283079987412"><ele>276.0</ele><time>2026-03-31T09:54:30Z</time></trkpt><trkpt lat="42.17644684751673" lon="-1.5452340487414564"><ele>276.0</ele><time>2026-03-31T09:54:31Z</time></trkpt><trkpt lat="42.176547100180834" lon="-1.5450412685819435"><ele>275.3333333333333</ele><time>2026-03-31T09:54:32Z</time></trkpt><trkpt lat="42.17663927415028" lon="-1.5448487693043393"><ele>274.66666666666663</ele><time>2026-03-31T09:54:33Z</time></trkpt><trkpt lat="42.1767277157494" lon="-1.5446551736991303"><ele>274.0</ele><time>2026-03-31T09:54:34Z</time></trkpt><trkpt lat="42.176813876836555" lon="-1.5444492541835133"><ele>273.66666666666663</ele><time>2026-03-31T09:54:35Z</time></trkpt><trkpt lat="42.17686400337648" lon="-1.54423899912888"><ele>273.3333333333333</ele><time>2026-03-31T09:54:36Z</time></trkpt><trkpt lat="42.17692164872539" lon="-1.5440459505249322"><ele>273.0</ele><time>2026-03-31T09:54:37Z</time></trkpt><trkpt lat="42.1769933850179" lon="-1.543849382539707"><ele>272.6666666666667</ele><time>2026-03-31T09:54:38Z</time></trkpt><trkpt lat="42.17704991968647" lon="-1.543642924948923"><ele>272.33333333333337</ele><time>2026-03-31T09:54:39Z</time></trkpt><trkpt lat="42.17710912393236" lon="-1.5434406003687724"><ele>272.0</ele><time>2026-03-31T09:54:40Z</time></trkpt><trkpt lat="42.1771501892599" lon="-1.5432346643227872"><ele>272.0</ele><time>2026-03-31T09:54:41Z</time></trkpt><trkpt lat="42.17718261820759" lon="-1.5430375136919434"><ele>272.0</ele><time>2026-03-31T09:54:42Z</time></trkpt><trkpt lat="42.17719164555797" lon="-1.5428374585877052"><ele>272.0</ele><time>2026-03-31T09:54:43Z</time></trkpt><trkpt lat="42.17717081104561" lon="-1.5426436821712934"><ele>272.0</ele><time>2026-03-31T09:54:44Z</time></trkpt><trkpt lat="42.17711619470535" lon="-1.542454655552006"><ele>272.33333333333337</ele><time>2026-03-31T09:54:45Z</time></trkpt><trkpt lat="42.17703523097346" lon="-1.5422805327019566"><ele>272.6666666666667</ele><time>2026-03-31T09:54:46Z</time></trkpt><trkpt lat="42.17693014727636" lon="-1.542113207935191"><ele>273.0</ele><time>2026-03-31T09:54:47Z</time></trkpt><trkpt lat="42.1768197454703" lon="-1.5419508877664325"><ele>272.6666666666667</ele><time>2026-03-31T09:54:48Z</time></trkpt><trkpt lat="42.176701589201755" lon="-1.5417852507863687"><ele>272.33333333333337</ele><time>2026-03-31T09:54:49Z</time></trkpt><trkpt lat="42.17658397795044" lon="-1.5416133931831033"><ele>272.0</ele><time>2026-03-31T09:54:50Z</time></trkpt><trkpt lat="42.17647507005655" lon="-1.5414498695914751"><ele>272.0</ele><time>2026-03-31T09:54:51Z</time></trkpt><trkpt lat="42.176371426104936" lon="-1.5412947871995417"><ele>272.0</ele><time>2026-03-31T09:54:52Z</time></trkpt><trkpt lat="42.17626972792409" lon="-1.5411443254599"><ele>272.0</ele><time>2026-03-31T09:54:53Z</time></trkpt><trkpt lat="42.176161614291594" lon="-1.5409911741059934"><ele>272.6666666666667</ele><time>2026-03-31T09:54:54Z</time></trkpt><trkpt lat="42.17605353579837" lon="-1.5408379510896568"><ele>273.3333333333333</ele><time>2026-03-31T09:54:55Z</time></trkpt><trkpt lat="42.175947111516365" lon="-1.5406866032610977"><ele>274.0</ele><time>2026-03-31T09:54:56Z</time></trkpt><trkpt lat="42.17584398641455" lon="-1.5405356637523662"><ele>274.0</ele><time>2026-03-31T09:54:57Z</time></trkpt><trkpt lat="42.17574253767295" lon="-1.540385579572664"><ele>274.0</ele><time>2026-03-31T09:54:58Z</time></trkpt><trkpt lat="42.17563825973543" lon="-1.5402330169536316"><ele>274.0</ele><time>2026-03-31T09:54:59Z</time></trkpt><trkpt lat="42.17553185619491" lon="-1.5400773437290969"><ele>274.66666666666663</ele><time>2026-03-31T09:55:00Z</time></trkpt><trkpt lat="42.17542517258533" lon="-1.5399250506687672"><ele>275.3333333333333</ele><time>2026-03-31T09:55:01Z</time></trkpt><trkpt lat="42.17532375018055" lon="-1.5397620481373024"><ele>276.0</ele><time>2026-03-31T09:55:02Z</time></trkpt><trkpt lat="42.17525580626843" lon="-1.5395796153781327"><ele>278.6666666666667</ele><time>2026-03-31T09:55:03Z</time></trkpt><trkpt lat="42.175215453053085" lon="-1.539391226478406"><ele>281.33333333333337</ele><time>2026-03-31T09:55:04Z</time></trkpt><trkpt lat="42.17522511378797" lon="-1.5391819055975422"><ele>284.0</ele><time>2026-03-31T09:55:05Z</time></trkpt><trkpt lat="42.175262556894104" lon="-1.5389552018538795"><ele>284.6666666666667</ele><time>2026-03-31T09:55:06Z</time></trkpt><trkpt lat="42.17529743364028" lon="-1.5387075368060634"><ele>285.3333333333333</ele><time>2026-03-31T09:55:07Z</time></trkpt><trkpt lat="42.17532101541233" lon="-1.5384625729503638"><ele>286.0</ele><time>2026-03-31T09:55:08Z</time></trkpt><trkpt lat="42.17534107338686" lon="-1.5382251942979925"><ele>286.0</ele><time>2026-03-31T09:55:09Z</time></trkpt><trkpt lat="42.175363247592294" lon="-1.537996578907015"><ele>286.0</ele><time>2026-03-31T09:55:10Z</time></trkpt><trkpt lat="42.17539382565608" lon="-1.5377721513891374"><ele>286.0</ele><time>2026-03-31T09:55:11Z</time></trkpt><trkpt lat="42.175428629612625" lon="-1.5375482418643422"><ele>287.0</ele><time>2026-03-31T09:55:12Z</time></trkpt><trkpt lat="42.175436546511186" lon="-1.5373182535598773"><ele>288.0</ele><time>2026-03-31T09:55:13Z</time></trkpt><trkpt lat="42.1754488284955" lon="-1.5370842042206936"><ele>289.0</ele><time>2026-03-31T09:55:14Z</time></trkpt><trkpt lat="42.175470366120656" lon="-1.5368459081894374"><ele>290.3333333333333</ele><time>2026-03-31T09:55:15Z</time></trkpt><trkpt lat="42.175475057779714" lon="-1.5366053442135266"><ele>291.6666666666667</ele><time>2026-03-31T09:55:16Z</time></trkpt><trkpt lat="42.17548266610128" lon="-1.5363699469218384"><ele>293.0</ele><time>2026-03-31T09:55:17Z</time></trkpt><trkpt lat="42.17549086745831" lon="-1.5361390367462504"><ele>294.6666666666667</ele><time>2026-03-31T09:55:18Z</time></trkpt><trkpt lat="42.17549689591141" lon="-1.5359227979451682"><ele>296.3333333333333</ele><time>2026-03-31T09:55:19Z</time></trkpt><trkpt lat="42.175519725050755" lon="-1.535701465632393"><ele>298.0</ele><time>2026-03-31T09:55:20Z</time></trkpt><trkpt lat="42.17557920126417" lon="-1.5354947416420714"><ele>298.66666666666663</ele><time>2026-03-31T09:55:21Z</time></trkpt><trkpt lat="42.175671073856186" lon="-1.5352987682542414"><ele>299.3333333333333</ele><time>2026-03-31T09:55:22Z</time></trkpt><trkpt lat="42.175774133227954" lon="-1.5351105142900217"><ele>300.0</ele><time>2026-03-31T09:55:23Z</time></trkpt><trkpt lat="42.17583186847674" lon="-1.534899335039272"><ele>301.3333333333333</ele><time>2026-03-31T09:55:24Z</time></trkpt><trkpt lat="42.175889168159735" lon="-1.5346786014776521"><ele>302.66666666666663</ele><time>2026-03-31T09:55:25Z</time></trkpt><trkpt lat="42.175954170351034" lon="-1.5344732406717974"><ele>304.0</ele><time>2026-03-31T09:55:26Z</time></trkpt><trkpt lat="42.17603515565349" lon="-1.5343050577637385"><ele>304.0</ele><time>2026-03-31T09:55:27Z</time></trkpt><trkpt lat="42.17615207835461" lon="-1.5341765507479492"><ele>304.0</ele><time>2026-03-31T09:55:28Z</time></trkpt><trkpt lat="42.176307856333935" lon="-1.5340932879444922"><ele>304.0</ele><time>2026-03-31T09:55:29Z</time></trkpt><trkpt lat="42.176473194829335" lon="-1.5340209521412804"><ele>306.3333333333333</ele><time>2026-03-31T09:55:30Z</time></trkpt><trkpt lat="42.17662602739745" lon="-1.5339459490745404"><ele>308.6666666666667</ele><time>2026-03-31T09:55:31Z</time></trkpt><trkpt lat="42.17677045916712" lon="-1.5338761478073726"><ele>311.0</ele><time>2026-03-31T09:55:32Z</time></trkpt><trkpt lat="42.17694071613484" lon="-1.5338168060772914"><ele>311.0</ele><time>2026-03-31T09:55:33Z</time></trkpt><trkpt lat="42.17712508923802" lon="-1.5337556179052068"><ele>311.0</ele><time>2026-03-31T09:55:34Z</time></trkpt><trkpt lat="42.17730641992278" lon="-1.5336840979301731"><ele>311.0</ele><time>2026-03-31T09:55:35Z</time></trkpt><trkpt lat="42.177473506030445" lon="-1.5336116824179804"><ele>310.0</ele><time>2026-03-31T09:55:36Z</time></trkpt><trkpt lat="42.177634438632296" lon="-1.5335493062205363"><ele>309.0</ele><time>2026-03-31T09:55:37Z</time></trkpt><trkpt lat="42.177785215544546" lon="-1.5335004371980951"><ele>308.0</ele><time>2026-03-31T09:55:38Z</time></trkpt><trkpt lat="42.17792494676707" lon="-1.5334647615760104"><ele>308.0</ele><time>2026-03-31T09:55:39Z</time></trkpt><trkpt lat="42.17805253760263" lon="-1.5334863139285921"><ele>308.0</ele><time>2026-03-31T09:55:40Z</time></trkpt><trkpt lat="42.17817179351616" lon="-1.533490069669374"><ele>308.0</ele><time>2026-03-31T09:55:41Z</time></trkpt><trkpt lat="42.178309915681815" lon="-1.5335377504568568"><ele>308.0</ele><time>2026-03-31T09:55:42Z</time></trkpt><trkpt lat="42.17845661419823" lon="-1.5335753200008293"><ele>308.5</ele><time>2026-03-31T09:55:43Z</time></trkpt><trkpt lat="42.17859545996131" lon="-1.533587925540063"><ele>309.0</ele><time>2026-03-31T09:55:44Z</time></trkpt><trkpt lat="42.178728539737264" lon="-1.5335832302483083"><ele>309.5</ele><time>2026-03-31T09:55:45Z</time></trkpt><trkpt lat="42.178853917067826" lon="-1.5335489637113497"><ele>310.0</ele><time>2026-03-31T09:55:46Z</time></trkpt><trkpt lat="42.17897795859671" lon="-1.5334835326748968"><ele>310.3333333333333</ele><time>2026-03-31T09:55:47Z</time></trkpt><trkpt lat="42.17910930062266" lon="-1.533378394984627"><ele>310.6666666666667</ele><time>2026-03-31T09:55:48Z</time></trkpt><trkpt lat="42.17924207569074" lon="-1.5332347090470833"><ele>311.0</ele><time>2026-03-31T09:55:49Z</time></trkpt><trkpt lat="42.179358067328884" lon="-1.5330876241505915"><ele>311.0</ele><time>2026-03-31T09:55:50Z</time></trkpt><trkpt lat="42.17946420815443" lon="-1.532954000865008"><ele>311.0</ele><time>2026-03-31T09:55:51Z</time></trkpt><trkpt lat="42.17956271099085" lon="-1.532823471306857"><ele>311.0</ele><time>2026-03-31T09:55:52Z</time></trkpt><trkpt lat="42.179673364614594" lon="-1.53266953411073"><ele>311.0</ele><time>2026-03-31T09:55:53Z</time></trkpt><trkpt lat="42.179789481774165" lon="-1.5324983914447599"><ele>312.6666666666667</ele><time>2026-03-31T09:55:54Z</time></trkpt><trkpt lat="42.1798933983136" lon="-1.5323249451617105"><ele>314.3333333333333</ele><time>2026-03-31T09:55:55Z</time></trkpt><trkpt lat="42.17997683733946" lon="-1.5321671302099378"><ele>316.0</ele><time>2026-03-31T09:55:56Z</time></trkpt><trkpt lat="42.18005796820751" lon="-1.53200979553258"><ele>316.25</ele><time>2026-03-31T09:55:57Z</time></trkpt><trkpt lat="42.18013629064093" lon="-1.531854768843745"><ele>316.5</ele><time>2026-03-31T09:55:58Z</time></trkpt><trkpt lat="42.18021497108939" lon="-1.5317031372147283"><ele>316.75</ele><time>2026-03-31T09:55:59Z</time></trkpt><trkpt lat="42.18028890706354" lon="-1.5315512248339402"><ele>317.0</ele><time>2026-03-31T09:56:00Z</time></trkpt><trkpt lat="42.180362840821765" lon="-1.5314088464278859"><ele>317.0</ele><time>2026-03-31T09:56:01Z</time></trkpt><trkpt lat="42.180435271478544" lon="-1.5312726893256134"><ele>317.0</ele><time>2026-03-31T09:56:02Z</time></trkpt><trkpt lat="42.1805010254027" lon="-1.531132066856274"><ele>317.0</ele><time>2026-03-31T09:56:03Z</time></trkpt><trkpt lat="42.18056830985722" lon="-1.5310127344613158"><ele>317.0</ele><time>2026-03-31T09:56:04Z</time></trkpt><trkpt lat="42.180623687873705" lon="-1.5309007266457324"><ele>317.33333333333337</ele><time>2026-03-31T09:56:05Z</time></trkpt><trkpt lat="42.18067685564433" lon="-1.5307938258324238"><ele>317.6666666666667</ele><time>2026-03-31T09:56:06Z</time></trkpt><trkpt lat="42.18072210028028" lon="-1.5307005195012642"><ele>318.0</ele><time>2026-03-31T09:56:07Z</time></trkpt><trkpt lat="42.180760421969126" lon="-1.530617633882149"><ele>318.3333333333333</ele><time>2026-03-31T09:56:08Z</time></trkpt><trkpt lat="42.18079821308594" lon="-1.53053637092585"><ele>318.66666666666663</ele><time>2026-03-31T09:56:09Z</time></trkpt><trkpt lat="42.18084142331654" lon="-1.5304374448588198"><ele>319.0</ele><time>2026-03-31T09:56:10Z</time></trkpt><trkpt lat="42.18086187019091" lon="-1.530318563205317"><ele>319.5</ele><time>2026-03-31T09:56:11Z</time></trkpt><trkpt lat="42.18089378069468" lon="-1.5302264037210374"><ele>320.0</ele><time>2026-03-31T09:56:12Z</time></trkpt><trkpt lat="42.18090823505677" lon="-1.5301258208576232"><ele>320.5</ele><time>2026-03-31T09:56:13Z</time></trkpt><trkpt lat="42.1809188142684" lon="-1.5300208970526514"><ele>321.0</ele><time>2026-03-31T09:56:14Z</time></trkpt><trkpt lat="42.180928910467294" lon="-1.5299089920423934"><ele>321.5</ele><time>2026-03-31T09:56:15Z</time></trkpt><trkpt lat="42.180937728453806" lon="-1.5297989271534322"><ele>322.0</ele><time>2026-03-31T09:56:16Z</time></trkpt><trkpt lat="42.180921672855426" lon="-1.529693952927754"><ele>322.0</ele><time>2026-03-31T09:56:18Z</time></trkpt><trkpt lat="42.180915768585635" lon="-1.5295860560079628"><ele>322.0</ele><time>2026-03-31T09:56:21Z</time></trkpt><trkpt lat="42.18090661802252" lon="-1.5294966935651588"><ele>322.0</ele><time>2026-03-31T09:56:25Z</time></trkpt><trkpt lat="42.18088974566811" lon="-1.5293720618154747"><ele>322.0</ele><time>2026-03-31T09:56:27Z</time></trkpt><trkpt lat="42.1808760465042" lon="-1.5292834422500914"><ele>322.0</ele><time>2026-03-31T09:56:28Z</time></trkpt><trkpt lat="42.18085849568923" lon="-1.5291812341299245"><ele>322.0</ele><time>2026-03-31T09:56:29Z</time></trkpt><trkpt lat="42.1808371354432" lon="-1.5290662982110188"><ele>322.0</ele><time>2026-03-31T09:56:30Z</time></trkpt><trkpt lat="42.180828474809694" lon="-1.5289326528292375"><ele>322.0</ele><time>2026-03-31T09:56:31Z</time></trkpt><trkpt lat="42.180802031203854" lon="-1.5287946968282127"><ele>322.0</ele><time>2026-03-31T09:56:32Z</time></trkpt><trkpt lat="42.18077219104028" lon="-1.528665544818737"><ele>322.0</ele><time>2026-03-31T09:56:33Z</time></trkpt><trkpt lat="42.18075104632861" lon="-1.528528877893942"><ele>322.0</ele><time>2026-03-31T09:56:34Z</time></trkpt><trkpt lat="42.18072825311522" lon="-1.5283848741754065"><ele>322.25</ele><time>2026-03-31T09:56:35Z</time></trkpt><trkpt lat="42.18070096551395" lon="-1.528238134723281"><ele>322.5</ele><time>2026-03-31T09:56:36Z</time></trkpt><trkpt lat="42.180661659799895" lon="-1.5280921500886169"><ele>322.75</ele><time>2026-03-31T09:56:37Z</time></trkpt><trkpt lat="42.180645616644206" lon="-1.5279329189751532"><ele>323.0</ele><time>2026-03-31T09:56:38Z</time></trkpt><trkpt lat="42.180620149143415" lon="-1.5277671826606156"><ele>321.75</ele><time>2026-03-31T09:56:39Z</time></trkpt><trkpt lat="42.180570923410976" lon="-1.527613367353707"><ele>320.5</ele><time>2026-03-31T09:56:40Z</time></trkpt><trkpt lat="42.18053156597837" lon="-1.527451025502"><ele>319.25</ele><time>2026-03-31T09:56:41Z</time></trkpt><trkpt lat="42.180485984376574" lon="-1.527294435475676"><ele>318.0</ele><time>2026-03-31T09:56:42Z</time></trkpt><trkpt lat="42.180429818264464" lon="-1.5271275773105712"><ele>317.5</ele><time>2026-03-31T09:56:43Z</time></trkpt><trkpt lat="42.1803793770399" lon="-1.526958781849235"><ele>317.0</ele><time>2026-03-31T09:56:44Z</time></trkpt><trkpt lat="42.18030968352606" lon="-1.5268071150336313"><ele>316.5</ele><time>2026-03-31T09:56:45Z</time></trkpt><trkpt lat="42.18024932548398" lon="-1.5266429372194137"><ele>316.0</ele><time>2026-03-31T09:56:46Z</time></trkpt><trkpt lat="42.180185967146286" lon="-1.526470123943246"><ele>316.0</ele><time>2026-03-31T09:56:47Z</time></trkpt><trkpt lat="42.18013384549644" lon="-1.5262809424219506"><ele>316.0</ele><time>2026-03-31T09:56:48Z</time></trkpt><trkpt lat="42.18006809921392" lon="-1.526098863513131"><ele>316.0</ele><time>2026-03-31T09:56:49Z</time></trkpt><trkpt lat="42.17998853742904" lon="-1.525928576045411"><ele>316.0</ele><time>2026-03-31T09:56:50Z</time></trkpt><trkpt lat="42.17992350333733" lon="-1.5257501881311473"><ele>315.25</ele><time>2026-03-31T09:56:51Z</time></trkpt><trkpt lat="42.1798734932893" lon="-1.5255634891951766"><ele>314.5</ele><time>2026-03-31T09:56:52Z</time></trkpt><trkpt lat="42.17980764570397" lon="-1.5253870060223567"><ele>313.75</ele><time>2026-03-31T09:56:53Z</time></trkpt><trkpt lat="42.179742181457705" lon="-1.525207299615905"><ele>313.0</ele><time>2026-03-31T09:56:54Z</time></trkpt><trkpt lat="42.1796604669305" lon="-1.5250331783062425"><ele>313.0</ele><time>2026-03-31T09:56:55Z</time></trkpt><trkpt lat="42.17959535437278" lon="-1.5248554668437877"><ele>313.0</ele><time>2026-03-31T09:56:56Z</time></trkpt><trkpt lat="42.17952709413588" lon="-1.5246691644725892"><ele>313.0</ele><time>2026-03-31T09:56:57Z</time></trkpt><trkpt lat="42.17945635254348" lon="-1.5244760896833736"><ele>311.66666666666663</ele><time>2026-03-31T09:56:58Z</time></trkpt><trkpt lat="42.17938892495917" lon="-1.5242797504550825"><ele>310.3333333333333</ele><time>2026-03-31T09:56:59Z</time></trkpt><trkpt lat="42.17934703402812" lon="-1.5240856863717562"><ele>309.0</ele><time>2026-03-31T09:57:00Z</time></trkpt><trkpt lat="42.17929835740951" lon="-1.5239021712796843"><ele>307.5</ele><time>2026-03-31T09:57:01Z</time></trkpt><trkpt lat="42.17926379133096" lon="-1.5237187250721336"><ele>306.0</ele><time>2026-03-31T09:57:02Z</time></trkpt><trkpt lat="42.17921315598628" lon="-1.5235315019339197"><ele>304.5</ele><time>2026-03-31T09:57:03Z</time></trkpt><trkpt lat="42.17917864122791" lon="-1.5233455359354637"><ele>303.0</ele><time>2026-03-31T09:57:04Z</time></trkpt><trkpt lat="42.179130384545545" lon="-1.5231769654890863"><ele>303.0</ele><time>2026-03-31T09:57:05Z</time></trkpt><trkpt lat="42.17906657065885" lon="-1.5230219262666211"><ele>303.0</ele><time>2026-03-31T09:57:06Z</time></trkpt><trkpt lat="42.17897951797453" lon="-1.5228536926175282"><ele>303.0</ele><time>2026-03-31T09:57:07Z</time></trkpt><trkpt lat="42.17888178079955" lon="-1.52267121122368"><ele>303.0</ele><time>2026-03-31T09:57:08Z</time></trkpt><trkpt lat="42.17877797305302" lon="-1.5224850121208686"><ele>303.0</ele><time>2026-03-31T09:57:09Z</time></trkpt><trkpt lat="42.17867097296512" lon="-1.5222896835356297"><ele>303.0</ele><time>2026-03-31T09:57:10Z</time></trkpt><trkpt lat="42.17856404813795" lon="-1.5220878030530043"><ele>302.3333333333333</ele><time>2026-03-31T09:57:11Z</time></trkpt><trkpt lat="42.1784636149662" lon="-1.5218981791304351"><ele>301.66666666666663</ele><time>2026-03-31T09:57:12Z</time></trkpt><trkpt lat="42.17836413166266" lon="-1.5217103487067956"><ele>301.0</ele><time>2026-03-31T09:57:13Z</time></trkpt><trkpt lat="42.178263146584094" lon="-1.5215217906159548"><ele>300.66666666666663</ele><time>2026-03-31T09:57:14Z</time></trkpt><trkpt lat="42.178160008431306" lon="-1.521333859611334"><ele>300.3333333333333</ele><time>2026-03-31T09:57:15Z</time></trkpt><trkpt lat="42.178058049161656" lon="-1.521148076670453"><ele>300.0</ele><time>2026-03-31T09:57:16Z</time></trkpt><trkpt lat="42.17795544642779" lon="-1.5209611212881797"><ele>300.0</ele><time>2026-03-31T09:57:17Z</time></trkpt><trkpt lat="42.177853587478914" lon="-1.5207749458492832"><ele>300.0</ele><time>2026-03-31T09:57:18Z</time></trkpt><trkpt lat="42.177752331897906" lon="-1.5205860170857137"><ele>300.0</ele><time>2026-03-31T09:57:19Z</time></trkpt><trkpt lat="42.177651634941206" lon="-1.5203956710138837"><ele>299.3333333333333</ele><time>2026-03-31T09:57:20Z</time></trkpt><trkpt lat="42.17755322413139" lon="-1.5202002077455767"><ele>298.66666666666663</ele><time>2026-03-31T09:57:21Z</time></trkpt><trkpt lat="42.17746045619438" lon="-1.5199963501745424"><ele>298.0</ele><time>2026-03-31T09:57:22Z</time></trkpt><trkpt lat="42.17737387330393" lon="-1.519788253637033"><ele>298.66666666666663</ele><time>2026-03-31T09:57:23Z</time></trkpt><trkpt lat="42.17728438571845" lon="-1.5195751295050577"><ele>299.3333333333333</ele><time>2026-03-31T09:57:24Z</time></trkpt><trkpt lat="42.177193922867765" lon="-1.5193606776954987"><ele>300.0</ele><time>2026-03-31T09:57:25Z</time></trkpt><trkpt lat="42.177102890946145" lon="-1.5191446292244746"><ele>298.6666666666667</ele><time>2026-03-31T09:57:26Z</time></trkpt><trkpt lat="42.177014408148366" lon="-1.5189342659726504"><ele>297.33333333333337</ele><time>2026-03-31T09:57:27Z</time></trkpt><trkpt lat="42.17692936130368" lon="-1.5187320715290487"><ele>296.0</ele><time>2026-03-31T09:57:28Z</time></trkpt><trkpt lat="42.176843674923845" lon="-1.5185283566427958"><ele>295.33333333333337</ele><time>2026-03-31T09:57:29Z</time></trkpt><trkpt lat="42.17675893651539" lon="-1.5183249565899004"><ele>294.6666666666667</ele><time>2026-03-31T09:57:30Z</time></trkpt><trkpt lat="42.17667349590549" lon="-1.51811985300231"><ele>294.0</ele><time>2026-03-31T09:57:31Z</time></trkpt><trkpt lat="42.17658908751672" lon="-1.5179148866263836"><ele>293.0</ele><time>2026-03-31T09:57:32Z</time></trkpt><trkpt lat="42.17650560226366" lon="-1.517705745599165"><ele>292.0</ele><time>2026-03-31T09:57:33Z</time></trkpt><trkpt lat="42.176428921486036" lon="-1.5174989153175151"><ele>291.0</ele><time>2026-03-31T09:57:34Z</time></trkpt><trkpt lat="42.17639521111546" lon="-1.5172805284356234"><ele>291.0</ele><time>2026-03-31T09:57:35Z</time></trkpt><trkpt lat="42.17637702558581" lon="-1.5170753640665353"><ele>291.0</ele><time>2026-03-31T09:57:36Z</time></trkpt><trkpt lat="42.176398186440665" lon="-1.5168697685769987"><ele>291.0</ele><time>2026-03-31T09:57:37Z</time></trkpt><trkpt lat="42.17644164492021" lon="-1.516664607600026"><ele>291.0</ele><time>2026-03-31T09:57:38Z</time></trkpt><trkpt lat="42.1764742603203" lon="-1.5164518180478872"><ele>291.0</ele><time>2026-03-31T09:57:39Z</time></trkpt><trkpt lat="42.17651711955697" lon="-1.5162374910629781"><ele>291.0</ele><time>2026-03-31T09:57:40Z</time></trkpt><trkpt lat="42.176560544635656" lon="-1.5160219831438946"><ele>291.0</ele><time>2026-03-31T09:57:41Z</time></trkpt><trkpt lat="42.17660507831687" lon="-1.5158034981105386"><ele>291.0</ele><time>2026-03-31T09:57:42Z</time></trkpt><trkpt lat="42.17664886650458" lon="-1.5155886705554904"><ele>291.0</ele><time>2026-03-31T09:57:43Z</time></trkpt><trkpt lat="42.17669237032867" lon="-1.5153753049127339"><ele>290.6666666666667</ele><time>2026-03-31T09:57:44Z</time></trkpt><trkpt lat="42.17673594211498" lon="-1.5151581511231906"><ele>290.33333333333337</ele><time>2026-03-31T09:57:45Z</time></trkpt><trkpt lat="42.17677745103529" lon="-1.5149512783845545"><ele>290.0</ele><time>2026-03-31T09:57:46Z</time></trkpt><trkpt lat="42.176817975088014" lon="-1.5147493140571466"><ele>290.25</ele><time>2026-03-31T09:57:47Z</time></trkpt><trkpt lat="42.17685722490625" lon="-1.5145558222158613"><ele>290.5</ele><time>2026-03-31T09:57:48Z</time></trkpt><trkpt lat="42.1768959432963" lon="-1.5143649567265978"><ele>290.75</ele><time>2026-03-31T09:57:49Z</time></trkpt><trkpt lat="42.17693237846769" lon="-1.5141710744007817"><ele>291.0</ele><time>2026-03-31T09:57:50Z</time></trkpt><trkpt lat="42.176960262238346" lon="-1.513957212424528"><ele>290.6666666666667</ele><time>2026-03-31T09:57:51Z</time></trkpt><trkpt lat="42.17697819258308" lon="-1.513731836560836"><ele>290.33333333333337</ele><time>2026-03-31T09:57:52Z</time></trkpt><trkpt lat="42.176995751617724" lon="-1.5135021557072534"><ele>290.0</ele><time>2026-03-31T09:57:53Z</time></trkpt><trkpt lat="42.17701356288632" lon="-1.5132691754059797"><ele>290.0</ele><time>2026-03-31T09:57:54Z</time></trkpt><trkpt lat="42.177031352584734" lon="-1.5130364773535838"><ele>290.0</ele><time>2026-03-31T09:57:55Z</time></trkpt><trkpt lat="42.17705063895347" lon="-1.512799981609514"><ele>290.0</ele><time>2026-03-31T09:57:56Z</time></trkpt><trkpt lat="42.17706995054711" lon="-1.5125634144454017"><ele>290.0</ele><time>2026-03-31T09:57:57Z</time></trkpt><trkpt lat="42.17708879010838" lon="-1.5123326300308773"><ele>290.0</ele><time>2026-03-31T09:57:58Z</time></trkpt><trkpt lat="42.17710731127818" lon="-1.5121057455350304"><ele>290.0</ele><time>2026-03-31T09:57:59Z</time></trkpt><trkpt lat="42.177132479929895" lon="-1.5118810374696048"><ele>290.0</ele><time>2026-03-31T09:58:00Z</time></trkpt><trkpt lat="42.17717442468335" lon="-1.5116631786932098"><ele>290.0</ele><time>2026-03-31T09:58:01Z</time></trkpt><trkpt lat="42.177223795731045" lon="-1.5114496980538419"><ele>290.0</ele><time>2026-03-31T09:58:02Z</time></trkpt><trkpt lat="42.17727432758937" lon="-1.5112380526023366"><ele>290.33333333333337</ele><time>2026-03-31T09:58:03Z</time></trkpt><trkpt lat="42.17732438730704" lon="-1.5110283846994597"><ele>290.6666666666667</ele><time>2026-03-31T09:58:04Z</time></trkpt><trkpt lat="42.17737533658823" lon="-1.5108149907068145"><ele>291.0</ele><time>2026-03-31T09:58:05Z</time></trkpt><trkpt lat="42.1774288786753" lon="-1.5105907373584089"><ele>290.6666666666667</ele><time>2026-03-31T09:58:06Z</time></trkpt><trkpt lat="42.1774843657037" lon="-1.510356777778096"><ele>290.33333333333337</ele><time>2026-03-31T09:58:07Z</time></trkpt><trkpt lat="42.177543895440316" lon="-1.510104591231537"><ele>290.0</ele><time>2026-03-31T09:58:08Z</time></trkpt><trkpt lat="42.177604041114996" lon="-1.509849795172864"><ele>290.0</ele><time>2026-03-31T09:58:09Z</time></trkpt><trkpt lat="42.17766170472719" lon="-1.5096055143373095"><ele>290.0</ele><time>2026-03-31T09:58:10Z</time></trkpt><trkpt lat="42.177717119885" lon="-1.5093673801396352"><ele>290.0</ele><time>2026-03-31T09:58:11Z</time></trkpt><trkpt lat="42.17777109797076" lon="-1.509132408739305"><ele>290.0</ele><time>2026-03-31T09:58:12Z</time></trkpt><trkpt lat="42.177824577283076" lon="-1.5088953375503085"><ele>290.0</ele><time>2026-03-31T09:58:13Z</time></trkpt><trkpt lat="42.17787838525304" lon="-1.5086585820438403"><ele>290.0</ele><time>2026-03-31T09:58:14Z</time></trkpt><trkpt lat="42.177932082614205" lon="-1.5084263255244135"><ele>290.0</ele><time>2026-03-31T09:58:15Z</time></trkpt><trkpt lat="42.177988686091005" lon="-1.5081992582880048"><ele>290.0</ele><time>2026-03-31T09:58:16Z</time></trkpt><trkpt lat="42.17807368097797" lon="-1.5079866930948322"><ele>290.0</ele><time>2026-03-31T09:58:17Z</time></trkpt><trkpt lat="42.17816013634729" lon="-1.5077760299039231"><ele>289.6666666666667</ele><time>2026-03-31T09:58:18Z</time></trkpt><trkpt lat="42.17826497459319" lon="-1.5075787466354522"><ele>289.3333333333333</ele><time>2026-03-31T09:58:19Z</time></trkpt><trkpt lat="42.17837254288785" lon="-1.5073851422126203"><ele>289.0</ele><time>2026-03-31T09:58:20Z</time></trkpt><trkpt lat="42.17846152415222" lon="-1.5071739158193636"><ele>288.66666666666663</ele><time>2026-03-31T09:58:21Z</time></trkpt><trkpt lat="42.1785637637102" lon="-1.5069743471326926"><ele>288.3333333333333</ele><time>2026-03-31T09:58:22Z</time></trkpt><trkpt lat="42.17866271430242" lon="-1.5067811984123134"><ele>288.0</ele><time>2026-03-31T09:58:23Z</time></trkpt><trkpt lat="42.17877473114586" lon="-1.506600337612991"><ele>288.0</ele><time>2026-03-31T09:58:24Z</time></trkpt><trkpt lat="42.17886224384286" lon="-1.5063940552807247"><ele>288.0</ele><time>2026-03-31T09:58:25Z</time></trkpt><trkpt lat="42.178979835269566" lon="-1.5062157832110539"><ele>288.0</ele><time>2026-03-31T09:58:26Z</time></trkpt><trkpt lat="42.179094482553495" lon="-1.5060350273257337"><ele>288.6666666666667</ele><time>2026-03-31T09:58:27Z</time></trkpt><trkpt lat="42.1792220466289" lon="-1.5058673006865602"><ele>289.33333333333337</ele><time>2026-03-31T09:58:28Z</time></trkpt><trkpt lat="42.179361462371894" lon="-1.505717205427776"><ele>290.0</ele><time>2026-03-31T09:58:29Z</time></trkpt><trkpt lat="42.17950408109304" lon="-1.5055763581960464"><ele>290.0</ele><time>2026-03-31T09:58:30Z</time></trkpt><trkpt lat="42.179643622606505" lon="-1.5054298495401983"><ele>290.0</ele><time>2026-03-31T09:58:31Z</time></trkpt><trkpt lat="42.17977575380233" lon="-1.505273174068428"><ele>290.0</ele><time>2026-03-31T09:58:32Z</time></trkpt><trkpt lat="42.179909598599394" lon="-1.5051256291916981"><ele>290.0</ele><time>2026-03-31T09:58:33Z</time></trkpt><trkpt lat="42.18004799630293" lon="-1.504978288242508"><ele>290.0</ele><time>2026-03-31T09:58:34Z</time></trkpt><trkpt lat="42.180189539852464" lon="-1.5048181944104375"><ele>290.0</ele><time>2026-03-31T09:58:35Z</time></trkpt><trkpt lat="42.18033171278384" lon="-1.5046476502320416"><ele>290.0</ele><time>2026-03-31T09:58:36Z</time></trkpt><trkpt lat="42.18048086164318" lon="-1.5044816721229854"><ele>290.0</ele><time>2026-03-31T09:58:37Z</time></trkpt><trkpt lat="42.180625132752056" lon="-1.5043297394432495"><ele>290.0</ele><time>2026-03-31T09:58:38Z</time></trkpt><trkpt lat="42.180755798074145" lon="-1.50418061742328"><ele>290.0</ele><time>2026-03-31T09:58:39Z</time></trkpt><trkpt lat="42.18083688765623" lon="-1.5039979548785103"><ele>290.0</ele><time>2026-03-31T09:58:40Z</time></trkpt><trkpt lat="42.180905881793606" lon="-1.5038082940729036"><ele>290.0</ele><time>2026-03-31T09:58:41Z</time></trkpt><trkpt lat="42.180958940908134" lon="-1.5035865428883102"><ele>290.0</ele><time>2026-03-31T09:58:42Z</time></trkpt><trkpt lat="42.18100314788681" lon="-1.503344050698828"><ele>290.0</ele><time>2026-03-31T09:58:43Z</time></trkpt><trkpt lat="42.181041769360974" lon="-1.503096151426371"><ele>290.0</ele><time>2026-03-31T09:58:44Z</time></trkpt><trkpt lat="42.181078769145415" lon="-1.502849504178035"><ele>290.0</ele><time>2026-03-31T09:58:45Z</time></trkpt><trkpt lat="42.18111556991725" lon="-1.5026022953131353"><ele>290.0</ele><time>2026-03-31T09:58:46Z</time></trkpt><trkpt lat="42.18115213557192" lon="-1.502356185427515"><ele>290.0</ele><time>2026-03-31T09:58:47Z</time></trkpt><trkpt lat="42.181188195348014" lon="-1.5021134804429035"><ele>290.6666666666667</ele><time>2026-03-31T09:58:48Z</time></trkpt><trkpt lat="42.1812240347439" lon="-1.5018722585971143"><ele>291.3333333333333</ele><time>2026-03-31T09:58:49Z</time></trkpt><trkpt lat="42.181261413476946" lon="-1.501630860413949"><ele>292.0</ele><time>2026-03-31T09:58:50Z</time></trkpt><trkpt lat="42.18129843677259" lon="-1.501391852023789"><ele>292.3333333333333</ele><time>2026-03-31T09:58:51Z</time></trkpt><trkpt lat="42.18133510110936" lon="-1.5011510051566415"><ele>292.6666666666667</ele><time>2026-03-31T09:58:52Z</time></trkpt><trkpt lat="42.181369811140335" lon="-1.5009114663863368"><ele>293.0</ele><time>2026-03-31T09:58:53Z</time></trkpt><trkpt lat="42.18140395686215" lon="-1.5006758215015676"><ele>293.0</ele><time>2026-03-31T09:58:54Z</time></trkpt><trkpt lat="42.181438798271564" lon="-1.500435375802769"><ele>293.0</ele><time>2026-03-31T09:58:55Z</time></trkpt><trkpt lat="42.18147498306704" lon="-1.5001891897829782"><ele>293.0</ele><time>2026-03-31T09:58:56Z</time></trkpt><trkpt lat="42.18150892690345" lon="-1.499958274078653"><ele>292.6666666666667</ele><time>2026-03-31T09:58:57Z</time></trkpt><trkpt lat="42.18154532322203" lon="-1.4997106744796795"><ele>292.3333333333333</ele><time>2026-03-31T09:58:58Z</time></trkpt><trkpt lat="42.181581618850835" lon="-1.499463759963614"><ele>292.0</ele><time>2026-03-31T09:58:59Z</time></trkpt><trkpt lat="42.181617187255455" lon="-1.49922381590255"><ele>292.66666666666663</ele><time>2026-03-31T09:59:00Z</time></trkpt><trkpt lat="42.181654872233224" lon="-1.4989747225356207"><ele>293.3333333333333</ele><time>2026-03-31T09:59:01Z</time></trkpt><trkpt lat="42.18169320050613" lon="-1.4987224701353081"><ele>294.0</ele><time>2026-03-31T09:59:02Z</time></trkpt><trkpt lat="42.181731433712024" lon="-1.4984650510969393"><ele>294.0</ele><time>2026-03-31T09:59:03Z</time></trkpt><trkpt lat="42.18177948315943" lon="-1.49820663756339"><ele>294.0</ele><time>2026-03-31T09:59:04Z</time></trkpt><trkpt lat="42.18180946205182" lon="-1.4979451772059702"><ele>294.0</ele><time>2026-03-31T09:59:05Z</time></trkpt><trkpt lat="42.181839267093224" lon="-1.4976867587300287"><ele>293.6666666666667</ele><time>2026-03-31T09:59:06Z</time></trkpt><trkpt lat="42.18186957677306" lon="-1.497526203160807"><ele>293.33333333333337</ele><time>2026-03-31T09:59:07Z</time></trkpt><trkpt lat="42.18190265391368" lon="-1.4973054487778914"><ele>293.0</ele><time>2026-03-31T09:59:08Z</time></trkpt><trkpt lat="42.18194507816394" lon="-1.4970928891213295"><ele>293.6666666666667</ele><time>2026-03-31T09:59:09Z</time></trkpt><trkpt lat="42.182002697454124" lon="-1.4968995727268821"><ele>294.3333333333333</ele><time>2026-03-31T09:59:10Z</time></trkpt><trkpt lat="42.182051985812365" lon="-1.4967073978022283"><ele>295.0</ele><time>2026-03-31T09:59:11Z</time></trkpt><trkpt lat="42.18210903994657" lon="-1.4965099504512136"><ele>295.0</ele><time>2026-03-31T09:59:12Z</time></trkpt><trkpt lat="42.182128298125065" lon="-1.496291550315323"><ele>295.0</ele><time>2026-03-31T09:59:13Z</time></trkpt><trkpt lat="42.18213989040352" lon="-1.4960616383686645"><ele>295.0</ele><time>2026-03-31T09:59:14Z</time></trkpt><trkpt lat="42.18214446125872" lon="-1.4958174623788525"><ele>295.0</ele><time>2026-03-31T09:59:15Z</time></trkpt><trkpt lat="42.18214906901558" lon="-1.4955713152575767"><ele>295.0</ele><time>2026-03-31T09:59:16Z</time></trkpt><trkpt lat="42.18215164224202" lon="-1.4953229759664806"><ele>295.0</ele><time>2026-03-31T09:59:17Z</time></trkpt><trkpt lat="42.18215373183456" lon="-1.4950735475655605"><ele>295.0</ele><time>2026-03-31T09:59:18Z</time></trkpt><trkpt lat="42.182164080873285" lon="-1.4948250784979167"><ele>295.0</ele><time>2026-03-31T09:59:19Z</time></trkpt><trkpt lat="42.18220254400914" lon="-1.494579933739912"><ele>295.0</ele><time>2026-03-31T09:59:20Z</time></trkpt><trkpt lat="42.18224810724828" lon="-1.4943407410143419"><ele>294.66666666666663</ele><time>2026-03-31T09:59:21Z</time></trkpt><trkpt lat="42.182325193639215" lon="-1.494111895573032"><ele>294.3333333333333</ele><time>2026-03-31T09:59:22Z</time></trkpt><trkpt lat="42.182399540875586" lon="-1.4938744226524854"><ele>294.0</ele><time>2026-03-31T09:59:23Z</time></trkpt><trkpt lat="42.18248273922243" lon="-1.493640889961399"><ele>293.3333333333333</ele><time>2026-03-31T09:59:24Z</time></trkpt><trkpt lat="42.182539787375035" lon="-1.493388684966734"><ele>292.66666666666663</ele><time>2026-03-31T09:59:25Z</time></trkpt><trkpt lat="42.18261060600573" lon="-1.4931426419994036"><ele>292.0</ele><time>2026-03-31T09:59:26Z</time></trkpt><trkpt lat="42.18268161641626" lon="-1.4929022092835187"><ele>292.0</ele><time>2026-03-31T09:59:27Z</time></trkpt><trkpt lat="42.18275150113802" lon="-1.4926670297789382"><ele>292.0</ele><time>2026-03-31T09:59:28Z</time></trkpt><trkpt lat="42.182820006349644" lon="-1.4924364925552116"><ele>292.0</ele><time>2026-03-31T09:59:29Z</time></trkpt><trkpt lat="42.182886807853706" lon="-1.492211688718688"><ele>292.3333333333333</ele><time>2026-03-31T09:59:30Z</time></trkpt><trkpt lat="42.182953774462625" lon="-1.4919863292922289"><ele>292.6666666666667</ele><time>2026-03-31T09:59:31Z</time></trkpt><trkpt lat="42.1830186116785" lon="-1.491768135810498"><ele>293.0</ele><time>2026-03-31T09:59:32Z</time></trkpt><trkpt lat="42.183083786412276" lon="-1.4915488065141767"><ele>293.0</ele><time>2026-03-31T09:59:33Z</time></trkpt><trkpt lat="42.18314605057279" lon="-1.4913387175399029"><ele>293.0</ele><time>2026-03-31T09:59:34Z</time></trkpt><trkpt lat="42.18320781333468" lon="-1.4911334302569619"><ele>293.0</ele><time>2026-03-31T09:59:35Z</time></trkpt><trkpt lat="42.18328266702519" lon="-1.4909489821755422"><ele>291.75</ele><time>2026-03-31T09:59:36Z</time></trkpt><trkpt lat="42.1833886855272" lon="-1.4908077501461936"><ele>290.5</ele><time>2026-03-31T09:59:37Z</time></trkpt><trkpt lat="42.183496797739124" lon="-1.4906920864085582"><ele>289.25</ele><time>2026-03-31T09:59:38Z</time></trkpt><trkpt lat="42.183607938054315" lon="-1.4906032335457025"><ele>288.0</ele><time>2026-03-31T09:59:39Z</time></trkpt><trkpt lat="42.183712460105504" lon="-1.4905215014322113"><ele>288.0</ele><time>2026-03-31T09:59:40Z</time></trkpt><trkpt lat="42.183824992917536" lon="-1.4904294418141777"><ele>288.0</ele><time>2026-03-31T09:59:41Z</time></trkpt><trkpt lat="42.18394970902274" lon="-1.490329754299354"><ele>288.0</ele><time>2026-03-31T09:59:42Z</time></trkpt><trkpt lat="42.184074501258436" lon="-1.490224675230474"><ele>288.0</ele><time>2026-03-31T09:59:43Z</time></trkpt><trkpt lat="42.184195209310815" lon="-1.4901208113004365"><ele>288.5</ele><time>2026-03-31T09:59:44Z</time></trkpt><trkpt lat="42.18431626231224" lon="-1.4900131767730909"><ele>289.0</ele><time>2026-03-31T09:59:45Z</time></trkpt><trkpt lat="42.184442253295025" lon="-1.4899036158989476"><ele>289.5</ele><time>2026-03-31T09:59:46Z</time></trkpt><trkpt lat="42.18457187652208" lon="-1.489790619558673"><ele>290.0</ele><time>2026-03-31T09:59:47Z</time></trkpt><trkpt lat="42.184694079197975" lon="-1.4896677277555093"><ele>290.0</ele><time>2026-03-31T09:59:48Z</time></trkpt><trkpt lat="42.18479315942557" lon="-1.4895044483476365"><ele>290.0</ele><time>2026-03-31T09:59:49Z</time></trkpt><trkpt lat="42.18489582163399" lon="-1.489345640007791"><ele>290.0</ele><time>2026-03-31T09:59:50Z</time></trkpt><trkpt lat="42.18499816179153" lon="-1.4891840252338155"><ele>290.0</ele><time>2026-03-31T09:59:51Z</time></trkpt><trkpt lat="42.185100379901215" lon="-1.4890213042841383"><ele>290.0</ele><time>2026-03-31T09:59:52Z</time></trkpt><trkpt lat="42.1852121544493" lon="-1.488866769896962"><ele>290.0</ele><time>2026-03-31T09:59:53Z</time></trkpt><trkpt lat="42.1853144682927" lon="-1.4886978744844237"><ele>290.0</ele><time>2026-03-31T09:59:54Z</time></trkpt><trkpt lat="42.18542428622197" lon="-1.4885296127249912"><ele>290.0</ele><time>2026-03-31T09:59:55Z</time></trkpt><trkpt lat="42.18553019313209" lon="-1.4883610710987412"><ele>290.0</ele><time>2026-03-31T09:59:56Z</time></trkpt><trkpt lat="42.18563721500117" lon="-1.488189481648671"><ele>290.33333333333337</ele><time>2026-03-31T09:59:57Z</time></trkpt><trkpt lat="42.18574322033773" lon="-1.488020353847944"><ele>290.6666666666667</ele><time>2026-03-31T09:59:58Z</time></trkpt><trkpt lat="42.18584098455617" lon="-1.4878670791665602"><ele>291.0</ele><time>2026-03-31T09:59:59Z</time></trkpt><trkpt lat="42.185930818752105" lon="-1.4877265511943898"><ele>291.0</ele><time>2026-03-31T10:00:00Z</time></trkpt><trkpt lat="42.18600832632043" lon="-1.4875737731361507"><ele>291.0</ele><time>2026-03-31T10:00:01Z</time></trkpt><trkpt lat="42.186093139141605" lon="-1.4874397838400935"><ele>291.0</ele><time>2026-03-31T10:00:02Z</time></trkpt><trkpt lat="42.18616951525935" lon="-1.4873191231725607"><ele>291.0</ele><time>2026-03-31T10:00:03Z</time></trkpt><trkpt lat="42.18623737146958" lon="-1.487211922339541"><ele>291.0</ele><time>2026-03-31T10:00:04Z</time></trkpt><trkpt lat="42.18629580887671" lon="-1.4871196015894599"><ele>291.0</ele><time>2026-03-31T10:00:05Z</time></trkpt><trkpt lat="42.18634480064337" lon="-1.4870422032648738"><ele>291.0</ele><time>2026-03-31T10:00:06Z</time></trkpt><trkpt lat="42.18638663596017" lon="-1.4869761108695552"><ele>291.0</ele><time>2026-03-31T10:00:07Z</time></trkpt><trkpt lat="42.18643969096738" lon="-1.4868922933485016"><ele>291.0</ele><time>2026-03-31T10:00:09Z</time></trkpt><trkpt lat="42.18649095071316" lon="-1.4868260696721245"><ele>291.0</ele><time>2026-03-31T10:00:32Z</time></trkpt><trkpt lat="42.186546211884085" lon="-1.4867444990845895"><ele>291.2</ele><time>2026-03-31T10:00:35Z</time></trkpt><trkpt lat="42.18658466337657" lon="-1.486672652629265"><ele>291.40000000000003</ele><time>2026-03-31T10:00:38Z</time></trkpt><trkpt lat="42.18664600293786" lon="-1.4865777733373406"><ele>291.6</ele><time>2026-03-31T10:00:59Z</time></trkpt><trkpt lat="42.186708093196714" lon="-1.4864950493594375"><ele>291.8</ele><time>2026-03-31T10:01:00Z</time></trkpt><trkpt lat="42.18678779473502" lon="-1.4863696621294507"><ele>292.0</ele><time>2026-03-31T10:01:01Z</time></trkpt><trkpt lat="42.186865787152875" lon="-1.4862358452075068"><ele>292.75</ele><time>2026-03-31T10:01:02Z</time></trkpt><trkpt lat="42.186915850949646" lon="-1.4860804441763829"><ele>293.5</ele><time>2026-03-31T10:01:03Z</time></trkpt><trkpt lat="42.18695601272358" lon="-1.4859213876353268"><ele>294.25</ele><time>2026-03-31T10:01:04Z</time></trkpt><trkpt lat="42.18696699563209" lon="-1.4857593329849648"><ele>295.0</ele><time>2026-03-31T10:01:05Z</time></trkpt><trkpt lat="42.18694485522035" lon="-1.4856044402355477"><ele>295.0</ele><time>2026-03-31T10:01:06Z</time></trkpt><trkpt lat="42.18690857638811" lon="-1.4854508559786397"><ele>295.0</ele><time>2026-03-31T10:01:07Z</time></trkpt><trkpt lat="42.18686968612348" lon="-1.4852984011819503"><ele>295.0</ele><time>2026-03-31T10:01:08Z</time></trkpt><trkpt lat="42.186833883713625" lon="-1.4851673409470658"><ele>295.0</ele><time>2026-03-31T10:01:09Z</time></trkpt><trkpt lat="42.186802459355874" lon="-1.4850541049206178"><ele>295.0</ele><time>2026-03-31T10:01:10Z</time></trkpt><trkpt lat="42.18677150766235" lon="-1.484942572076733"><ele>295.2</ele><time>2026-03-31T10:01:11Z</time></trkpt><trkpt lat="42.186736478133916" lon="-1.4848163450192877"><ele>295.4</ele><time>2026-03-31T10:01:12Z</time></trkpt><trkpt lat="42.186701885607754" lon="-1.4846916925780513"><ele>295.6</ele><time>2026-03-31T10:01:13Z</time></trkpt><trkpt lat="42.186670602394955" lon="-1.484578965132529"><ele>295.8</ele><time>2026-03-31T10:01:14Z</time></trkpt><trkpt lat="42.18664589395669" lon="-1.484489929562239"><ele>296.0</ele><time>2026-03-31T10:01:15Z</time></trkpt><trkpt lat="42.186609491180015" lon="-1.4843587538783636"><ele>296.40000000000003</ele><time>2026-03-31T10:01:17Z</time></trkpt><trkpt lat="42.18658881032579" lon="-1.484275888353758"><ele>296.8</ele><time>2026-03-31T10:01:39Z</time></trkpt><trkpt lat="42.18661207711486" lon="-1.4843675872960083"><ele>297.20000000000005</ele><time>2026-03-31T10:01:44Z</time></trkpt><trkpt lat="42.18674867403639" lon="-1.4843239528673755"><ele>297.6</ele><time>2026-03-31T10:01:48Z</time></trkpt><trkpt lat="42.18682905655396" lon="-1.4842836544125197"><ele>298.0</ele><time>2026-03-31T10:01:50Z</time></trkpt><trkpt lat="42.18693638797167" lon="-1.484234960526303"><ele>298.0</ele><time>2026-03-31T10:01:52Z</time></trkpt><trkpt lat="42.18705156829002" lon="-1.484205893933221"><ele>298.0</ele><time>2026-03-31T10:01:54Z</time></trkpt><trkpt lat="42.18718595236645" lon="-1.4842096090611485"><ele>298.0</ele><time>2026-03-31T10:01:56Z</time></trkpt><trkpt lat="42.18731295169468" lon="-1.4842548404644476"><ele>298.0</ele><time>2026-03-31T10:01:58Z</time></trkpt><trkpt lat="42.18738210265896" lon="-1.48429128050942"><ele>298.0</ele><time>2026-03-31T10:01:59Z</time></trkpt><trkpt lat="42.18743738633843" lon="-1.4843321838114942"><ele>298.0</ele><time>2026-03-31T10:02:00Z</time></trkpt><trkpt lat="42.18750112197517" lon="-1.4843879441018732"><ele>298.0</ele><time>2026-03-31T10:02:01Z</time></trkpt><trkpt lat="42.18756664529814" lon="-1.4844457129609203"><ele>298.0</ele><time>2026-03-31T10:02:02Z</time></trkpt><trkpt lat="42.18763901753213" lon="-1.4845091639790708"><ele>298.0</ele><time>2026-03-31T10:02:03Z</time></trkpt><trkpt lat="42.18770942310453" lon="-1.4845735502369648"><ele>298.0</ele><time>2026-03-31T10:02:04Z</time></trkpt><trkpt lat="42.1877838708955" lon="-1.4846386772391118"><ele>298.0</ele><time>2026-03-31T10:02:05Z</time></trkpt><trkpt lat="42.1878569537446" lon="-1.4846996155920338"><ele>298.0</ele><time>2026-03-31T10:02:06Z</time></trkpt><trkpt lat="42.18792899779706" lon="-1.484761705217235"><ele>298.0</ele><time>2026-03-31T10:02:07Z</time></trkpt><trkpt lat="42.18800153098745" lon="-1.4848216269996888"><ele>298.0</ele><time>2026-03-31T10:02:08Z</time></trkpt><trkpt lat="42.18807339782173" lon="-1.4848808338880115"><ele>298.0</ele><time>2026-03-31T10:02:09Z</time></trkpt><trkpt lat="42.1881505288938" lon="-1.484939076515361"><ele>298.0</ele><time>2026-03-31T10:02:10Z</time></trkpt><trkpt lat="42.18822690755321" lon="-1.4850103545992717"><ele>298.4</ele><time>2026-03-31T10:02:11Z</time></trkpt><trkpt lat="42.18830421174451" lon="-1.485081455442994"><ele>298.8</ele><time>2026-03-31T10:02:12Z</time></trkpt><trkpt lat="42.18838979531534" lon="-1.4851589763321456"><ele>299.2</ele><time>2026-03-31T10:02:13Z</time></trkpt><trkpt lat="42.18847538655719" lon="-1.4852392439063633"><ele>299.6</ele><time>2026-03-31T10:02:14Z</time></trkpt><trkpt lat="42.18857195828711" lon="-1.4853265480920794"><ele>300.0</ele><time>2026-03-31T10:02:15Z</time></trkpt><trkpt lat="42.18867841158908" lon="-1.4854146223420028"><ele>300.25</ele><time>2026-03-31T10:02:16Z</time></trkpt><trkpt lat="42.188784281615135" lon="-1.4855065598927804"><ele>300.5</ele><time>2026-03-31T10:02:17Z</time></trkpt><trkpt lat="42.188897421400966" lon="-1.4855910389929243"><ele>300.75</ele><time>2026-03-31T10:02:18Z</time></trkpt><trkpt lat="42.189010230275876" lon="-1.4856849433841064"><ele>301.0</ele><time>2026-03-31T10:02:19Z</time></trkpt><trkpt lat="42.189115596918825" lon="-1.4857740478672927"><ele>301.0</ele><time>2026-03-31T10:02:20Z</time></trkpt><trkpt lat="42.1892097307406" lon="-1.4858533676956733"><ele>301.0</ele><time>2026-03-31T10:02:21Z</time></trkpt><trkpt lat="42.18929735339776" lon="-1.4859261447353747"><ele>301.0</ele><time>2026-03-31T10:02:22Z</time></trkpt><trkpt lat="42.18938873058508" lon="-1.4859989657534967"><ele>301.0</ele><time>2026-03-31T10:02:23Z</time></trkpt><trkpt lat="42.1894800063035" lon="-1.4860710225712905"><ele>301.0</ele><time>2026-03-31T10:02:24Z</time></trkpt><trkpt lat="42.18957177512832" lon="-1.4861479113139993"><ele>301.0</ele><time>2026-03-31T10:02:25Z</time></trkpt><trkpt lat="42.18966457423682" lon="-1.4862355100717792"><ele>301.0</ele><time>2026-03-31T10:02:26Z</time></trkpt><trkpt lat="42.18975771661042" lon="-1.4863159586127535"><ele>301.0</ele><time>2026-03-31T10:02:27Z</time></trkpt><trkpt lat="42.18983751476432" lon="-1.4863791883635593"><ele>301.0</ele><time>2026-03-31T10:02:28Z</time></trkpt><trkpt lat="42.18992085495956" lon="-1.486449572924796"><ele>301.0</ele><time>2026-03-31T10:02:29Z</time></trkpt><trkpt lat="42.189999795670964" lon="-1.4865148840287277"><ele>301.0</ele><time>2026-03-31T10:02:30Z</time></trkpt><trkpt lat="42.19007320945552" lon="-1.4865739322589682"><ele>301.0</ele><time>2026-03-31T10:02:31Z</time></trkpt><trkpt lat="42.190146142722725" lon="-1.486641366085959"><ele>301.0</ele><time>2026-03-31T10:02:32Z</time></trkpt><trkpt lat="42.19023046137034" lon="-1.486711608713199"><ele>301.0</ele><time>2026-03-31T10:02:33Z</time></trkpt><trkpt lat="42.1903160911685" lon="-1.486781528426795"><ele>301.0</ele><time>2026-03-31T10:02:34Z</time></trkpt><trkpt lat="42.19040066992583" lon="-1.4868507931886832"><ele>301.0</ele><time>2026-03-31T10:02:35Z</time></trkpt><trkpt lat="42.190484560273816" lon="-1.4869225594570086"><ele>301.0</ele><time>2026-03-31T10:02:36Z</time></trkpt><trkpt lat="42.190565988100495" lon="-1.4869913800676946"><ele>301.0</ele><time>2026-03-31T10:02:37Z</time></trkpt><trkpt lat="42.19064638670351" lon="-1.4870672727642482"><ele>301.0</ele><time>2026-03-31T10:02:38Z</time></trkpt><trkpt lat="42.190716360282686" lon="-1.487145058883243"><ele>301.0</ele><time>2026-03-31T10:02:39Z</time></trkpt><trkpt lat="42.19077559830713" lon="-1.4872026601636716"><ele>301.66666666666663</ele><time>2026-03-31T10:02:40Z</time></trkpt><trkpt lat="42.19083658187431" lon="-1.4872530052825148"><ele>302.3333333333333</ele><time>2026-03-31T10:02:41Z</time></trkpt><trkpt lat="42.190908960615694" lon="-1.4873128551660475"><ele>303.0</ele><time>2026-03-31T10:02:42Z</time></trkpt><trkpt lat="42.19098788479518" lon="-1.4873769919577209"><ele>303.6666666666667</ele><time>2026-03-31T10:02:43Z</time></trkpt><trkpt lat="42.19106384750266" lon="-1.4874391138463894"><ele>304.33333333333337</ele><time>2026-03-31T10:02:44Z</time></trkpt><trkpt lat="42.1911451595008" lon="-1.4875078096198218"><ele>305.0</ele><time>2026-03-31T10:02:45Z</time></trkpt><trkpt lat="42.19122976803049" lon="-1.4875798924569228"><ele>305.0</ele><time>2026-03-31T10:02:46Z</time></trkpt><trkpt lat="42.19131687389899" lon="-1.4876560866128452"><ele>305.0</ele><time>2026-03-31T10:02:47Z</time></trkpt><trkpt lat="42.19139705445325" lon="-1.4877247345432079"><ele>305.0</ele><time>2026-03-31T10:02:48Z</time></trkpt><trkpt lat="42.19146258757649" lon="-1.4877821781366811"><ele>305.0</ele><time>2026-03-31T10:02:49Z</time></trkpt><trkpt lat="42.19152950901993" lon="-1.487834823858353"><ele>305.0</ele><time>2026-03-31T10:02:50Z</time></trkpt><trkpt lat="42.191595827881535" lon="-1.4878904316237922"><ele>305.0</ele><time>2026-03-31T10:02:51Z</time></trkpt><trkpt lat="42.19166806890471" lon="-1.4879503838037496"><ele>305.2</ele><time>2026-03-31T10:02:52Z</time></trkpt><trkpt lat="42.191740526461864" lon="-1.4880068403389766"><ele>305.4</ele><time>2026-03-31T10:02:53Z</time></trkpt><trkpt lat="42.191809503327036" lon="-1.4880700754049883"><ele>305.6</ele><time>2026-03-31T10:02:54Z</time></trkpt><trkpt lat="42.19188732127295" lon="-1.4881367196394757"><ele>305.8</ele><time>2026-03-31T10:02:55Z</time></trkpt><trkpt lat="42.19197370828767" lon="-1.48821297301163"><ele>306.0</ele><time>2026-03-31T10:02:56Z</time></trkpt><trkpt lat="42.19206785824051" lon="-1.4882668455567107"><ele>306.0</ele><time>2026-03-31T10:02:57Z</time></trkpt><trkpt lat="42.192156804003126" lon="-1.4883404274114425"><ele>306.0</ele><time>2026-03-31T10:02:58Z</time></trkpt><trkpt lat="42.19224458323375" lon="-1.4884130442013814"><ele>306.0</ele><time>2026-03-31T10:02:59Z</time></trkpt><trkpt lat="42.19232792914179" lon="-1.4885071673044206"><ele>306.0</ele><time>2026-03-31T10:03:00Z</time></trkpt><trkpt lat="42.19242293454633" lon="-1.4885787925941645"><ele>306.0</ele><time>2026-03-31T10:03:01Z</time></trkpt><trkpt lat="42.192511509783586" lon="-1.4886554343311424"><ele>305.8</ele><time>2026-03-31T10:03:02Z</time></trkpt><trkpt lat="42.19259626115409" lon="-1.4887275266338267"><ele>305.6</ele><time>2026-03-31T10:03:03Z</time></trkpt><trkpt lat="42.19267872636281" lon="-1.4888043003068503"><ele>305.4</ele><time>2026-03-31T10:03:04Z</time></trkpt><trkpt lat="42.192758737971154" lon="-1.4888857899119687"><ele>305.2</ele><time>2026-03-31T10:03:05Z</time></trkpt><trkpt lat="42.19284226632159" lon="-1.4889653573513484"><ele>305.0</ele><time>2026-03-31T10:03:06Z</time></trkpt><trkpt lat="42.19293193329655" lon="-1.4890335104502697"><ele>305.0</ele><time>2026-03-31T10:03:07Z</time></trkpt><trkpt lat="42.19301112323902" lon="-1.4891141156153878"><ele>305.0</ele><time>2026-03-31T10:03:08Z</time></trkpt><trkpt lat="42.193083616432986" lon="-1.4892059110767"><ele>305.0</ele><time>2026-03-31T10:03:09Z</time></trkpt><trkpt lat="42.193152554358015" lon="-1.4892839777920457"><ele>305.0</ele><time>2026-03-31T10:03:10Z</time></trkpt><trkpt lat="42.19320706963486" lon="-1.4893406865218806"><ele>305.0</ele><time>2026-03-31T10:03:11Z</time></trkpt><trkpt lat="42.19326010253298" lon="-1.4893940788881161"><ele>305.0</ele><time>2026-03-31T10:03:12Z</time></trkpt><trkpt lat="42.19335481122168" lon="-1.489466919870227"><ele>305.0</ele><time>2026-03-31T10:03:14Z</time></trkpt><trkpt lat="42.19344016143835" lon="-1.4895102114892909"><ele>305.0</ele><time>2026-03-31T10:03:16Z</time></trkpt><trkpt lat="42.19348730702157" lon="-1.4895767327396852"><ele>305.0</ele><time>2026-03-31T10:03:40Z</time></trkpt><trkpt lat="42.19354748563834" lon="-1.489624639565954"><ele>305.0</ele><time>2026-03-31T10:05:44Z</time></trkpt><trkpt lat="42.19348910836677" lon="-1.4895926241794917"><ele>305.0</ele><time>2026-03-31T10:06:12Z</time></trkpt><trkpt lat="42.19338241752856" lon="-1.4895350965784633"><ele>305.0</ele><time>2026-03-31T10:07:05Z</time></trkpt><trkpt lat="42.19332105154361" lon="-1.4894677092730273"><ele>305.0</ele><time>2026-03-31T10:07:06Z</time></trkpt><trkpt lat="42.19323747506233" lon="-1.4893774380688287"><ele>305.0</ele><time>2026-03-31T10:07:07Z</time></trkpt><trkpt lat="42.19313760086944" lon="-1.4892749938434635"><ele>305.0</ele><time>2026-03-31T10:07:08Z</time></trkpt><trkpt lat="42.193043461547006" lon="-1.4891772324383243"><ele>305.0</ele><time>2026-03-31T10:07:09Z</time></trkpt><trkpt lat="42.19294394645424" lon="-1.4891019141254838"><ele>305.0</ele><time>2026-03-31T10:07:10Z</time></trkpt><trkpt lat="42.19286274874207" lon="-1.4890209651879827"><ele>305.0</ele><time>2026-03-31T10:07:11Z</time></trkpt><trkpt lat="42.19279608559169" lon="-1.4889556616043484"><ele>305.0</ele><time>2026-03-31T10:07:12Z</time></trkpt><trkpt lat="42.19273450507107" lon="-1.4888964161778582"><ele>305.0</ele><time>2026-03-31T10:07:13Z</time></trkpt><trkpt lat="42.192638693438155" lon="-1.4888076729942443"><ele>305.0</ele><time>2026-03-31T10:07:15Z</time></trkpt><trkpt lat="42.19255216301299" lon="-1.4887300939968386"><ele>305.2</ele><time>2026-03-31T10:07:17Z</time></trkpt><trkpt lat="42.192458987021574" lon="-1.4886363866825139"><ele>305.4</ele><time>2026-03-31T10:07:19Z</time></trkpt><trkpt lat="42.19236637824255" lon="-1.4885480460783012"><ele>305.6</ele><time>2026-03-31T10:07:21Z</time></trkpt><trkpt lat="42.19228352910093" lon="-1.488478290624328"><ele>305.8</ele><time>2026-03-31T10:07:23Z</time></trkpt><trkpt lat="42.19221416931784" lon="-1.4884296705092657"><ele>306.0</ele><time>2026-03-31T10:07:25Z</time></trkpt><trkpt lat="42.19229904599312" lon="-1.4885033305479483"><ele>305.8</ele><time>2026-03-31T10:07:33Z</time></trkpt><trkpt lat="42.19239673072863" lon="-1.4885560305985444"><ele>305.6</ele><time>2026-03-31T10:07:35Z</time></trkpt><trkpt lat="42.19246775454692" lon="-1.4886174812216935"><ele>305.4</ele><time>2026-03-31T10:07:36Z</time></trkpt><trkpt lat="42.19253309427897" lon="-1.488673603671502"><ele>305.2</ele><time>2026-03-31T10:07:37Z</time></trkpt><trkpt lat="42.192634843825545" lon="-1.4887704887891777"><ele>305.0</ele><time>2026-03-31T10:07:39Z</time></trkpt><trkpt lat="42.192730841677424" lon="-1.4888442665218573"><ele>305.0</ele><time>2026-03-31T10:07:41Z</time></trkpt><trkpt lat="42.19280266747044" lon="-1.4888862741194389"><ele>305.0</ele><time>2026-03-31T10:07:43Z</time></trkpt><trkpt lat="42.192869074617064" lon="-1.4889313415762804"><ele>305.0</ele><time>2026-03-31T10:07:47Z</time></trkpt><trkpt lat="42.192920475154374" lon="-1.4890026204753066"><ele>305.0</ele><time>2026-03-31T10:07:55Z</time></trkpt><trkpt lat="42.19299946046153" lon="-1.4890980049580305"><ele>305.0</ele><time>2026-03-31T10:07:57Z</time></trkpt><trkpt lat="42.19305669816435" lon="-1.4891628362529903"><ele>305.0</ele><time>2026-03-31T10:07:58Z</time></trkpt><trkpt lat="42.19312406090119" lon="-1.48923642303148"><ele>305.0</ele><time>2026-03-31T10:07:59Z</time></trkpt><trkpt lat="42.19319438073973" lon="-1.4893091816218615"><ele>305.0</ele><time>2026-03-31T10:08:00Z</time></trkpt><trkpt lat="42.19327269332975" lon="-1.489381671395679"><ele>305.0</ele><time>2026-03-31T10:08:01Z</time></trkpt><trkpt lat="42.193367527333606" lon="-1.4894828472832624"><ele>305.0</ele><time>2026-03-31T10:08:02Z</time></trkpt><trkpt lat="42.1934763115976" lon="-1.4896054015746378"><ele>305.0</ele><time>2026-03-31T10:08:03Z</time></trkpt><trkpt lat="42.19358879729129" lon="-1.4897201294596853"><ele>304.75</ele><time>2026-03-31T10:08:04Z</time></trkpt><trkpt lat="42.19370181644218" lon="-1.4898308549183847"><ele>304.5</ele><time>2026-03-31T10:08:05Z</time></trkpt><trkpt lat="42.19381919801567" lon="-1.4899465417626603"><ele>304.25</ele><time>2026-03-31T10:08:06Z</time></trkpt><trkpt lat="42.193941323277116" lon="-1.4900698161626753"><ele>304.0</ele><time>2026-03-31T10:08:07Z</time></trkpt><trkpt lat="42.19406382281881" lon="-1.4901861160218803"><ele>303.5</ele><time>2026-03-31T10:08:08Z</time></trkpt><trkpt lat="42.19417142245145" lon="-1.4902933325320775"><ele>303.0</ele><time>2026-03-31T10:08:09Z</time></trkpt><trkpt lat="42.194282966268865" lon="-1.4903991412712891"><ele>302.5</ele><time>2026-03-31T10:08:10Z</time></trkpt><trkpt lat="42.19438676524345" lon="-1.4905010373826055"><ele>302.0</ele><time>2026-03-31T10:08:11Z</time></trkpt><trkpt lat="42.19448516744534" lon="-1.490597693044757"><ele>301.75</ele><time>2026-03-31T10:08:12Z</time></trkpt><trkpt lat="42.19457826873122" lon="-1.4906965376686083"><ele>301.5</ele><time>2026-03-31T10:08:13Z</time></trkpt><trkpt lat="42.19468935148926" lon="-1.4907803483490387"><ele>301.25</ele><time>2026-03-31T10:08:14Z</time></trkpt><trkpt lat="42.19477161926505" lon="-1.4908892440668409"><ele>301.0</ele><time>2026-03-31T10:08:15Z</time></trkpt><trkpt lat="42.194870740808476" lon="-1.4909741621511976"><ele>301.0</ele><time>2026-03-31T10:08:16Z</time></trkpt><trkpt lat="42.19496506393295" lon="-1.4910557175069625"><ele>301.0</ele><time>2026-03-31T10:08:17Z</time></trkpt><trkpt lat="42.19505723330749" lon="-1.4911489495411556"><ele>301.0</ele><time>2026-03-31T10:08:18Z</time></trkpt><trkpt lat="42.19514603908935" lon="-1.4912594714779173"><ele>301.0</ele><time>2026-03-31T10:08:19Z</time></trkpt><trkpt lat="42.19524559973345" lon="-1.4913591034290423"><ele>300.5</ele><time>2026-03-31T10:08:20Z</time></trkpt><trkpt lat="42.19534193617674" lon="-1.4914475780120533"><ele>300.0</ele><time>2026-03-31T10:08:21Z</time></trkpt><trkpt lat="42.195431597167506" lon="-1.4915467896065948"><ele>299.5</ele><time>2026-03-31T10:08:22Z</time></trkpt><trkpt lat="42.195524092980946" lon="-1.4916432891845466"><ele>299.0</ele><time>2026-03-31T10:08:23Z</time></trkpt><trkpt lat="42.195612714320944" lon="-1.4917326248745075"><ele>299.2</ele><time>2026-03-31T10:08:24Z</time></trkpt><trkpt lat="42.195696153040295" lon="-1.4918200041090506"><ele>299.4</ele><time>2026-03-31T10:08:25Z</time></trkpt><trkpt lat="42.19577586273755" lon="-1.491897991414211"><ele>299.6</ele><time>2026-03-31T10:08:26Z</time></trkpt><trkpt lat="42.195854622261145" lon="-1.4919762562936008"><ele>299.8</ele><time>2026-03-31T10:08:27Z</time></trkpt><trkpt lat="42.1959528833276" lon="-1.4920710753946906"><ele>300.0</ele><time>2026-03-31T10:08:28Z</time></trkpt><trkpt lat="42.1960568482925" lon="-1.4921690765510902"><ele>300.0</ele><time>2026-03-31T10:08:29Z</time></trkpt><trkpt lat="42.19616060990943" lon="-1.4922761272154714"><ele>300.0</ele><time>2026-03-31T10:08:30Z</time></trkpt><trkpt lat="42.1962620076259" lon="-1.4923848357122727"><ele>300.0</ele><time>2026-03-31T10:08:31Z</time></trkpt><trkpt lat="42.19637168523608" lon="-1.4924900371211696"><ele>300.0</ele><time>2026-03-31T10:08:32Z</time></trkpt><trkpt lat="42.196473936501185" lon="-1.4926003007074033"><ele>299.75</ele><time>2026-03-31T10:08:33Z</time></trkpt><trkpt lat="42.19657653542777" lon="-1.4927021832208076"><ele>299.5</ele><time>2026-03-31T10:08:34Z</time></trkpt><trkpt lat="42.196679550758944" lon="-1.4928081381889178"><ele>299.25</ele><time>2026-03-31T10:08:35Z</time></trkpt><trkpt lat="42.19678765219087" lon="-1.4929109953501472"><ele>299.0</ele><time>2026-03-31T10:08:36Z</time></trkpt><trkpt lat="42.196901339039286" lon="-1.4930147926309236"><ele>298.75</ele><time>2026-03-31T10:08:37Z</time></trkpt><trkpt lat="42.19702069481599" lon="-1.4931152030595425"><ele>298.5</ele><time>2026-03-31T10:08:38Z</time></trkpt><trkpt lat="42.197136138471976" lon="-1.4932263821139231"><ele>298.25</ele><time>2026-03-31T10:08:39Z</time></trkpt><trkpt lat="42.197248271193985" lon="-1.493345525753519"><ele>298.0</ele><time>2026-03-31T10:08:40Z</time></trkpt><trkpt lat="42.197358346475255" lon="-1.4934598794721246"><ele>298.0</ele><time>2026-03-31T10:08:41Z</time></trkpt><trkpt lat="42.197474112585375" lon="-1.4935834244470545"><ele>298.0</ele><time>2026-03-31T10:08:42Z</time></trkpt><trkpt lat="42.19759302112933" lon="-1.493706316862876"><ele>298.0</ele><time>2026-03-31T10:08:43Z</time></trkpt><trkpt lat="42.197711824206095" lon="-1.4938314813418447"><ele>298.0</ele><time>2026-03-31T10:08:44Z</time></trkpt><trkpt lat="42.197832380779666" lon="-1.4939479590009586"><ele>297.3333333333333</ele><time>2026-03-31T10:08:45Z</time></trkpt><trkpt lat="42.19795433638854" lon="-1.4940625378197876"><ele>296.6666666666667</ele><time>2026-03-31T10:08:46Z</time></trkpt><trkpt lat="42.1980755987673" lon="-1.4941863434316662"><ele>296.0</ele><time>2026-03-31T10:08:47Z</time></trkpt><trkpt lat="42.198196827793005" lon="-1.4943118497053007"><ele>296.0</ele><time>2026-03-31T10:08:48Z</time></trkpt><trkpt lat="42.19831831866461" lon="-1.4944283898907027"><ele>296.0</ele><time>2026-03-31T10:08:49Z</time></trkpt><trkpt lat="42.19843875111246" lon="-1.4945482337824505"><ele>296.0</ele><time>2026-03-31T10:08:50Z</time></trkpt><trkpt lat="42.19855910687926" lon="-1.4946742775730217"><ele>296.0</ele><time>2026-03-31T10:08:51Z</time></trkpt><trkpt lat="42.19867854075344" lon="-1.494797473823799"><ele>296.0</ele><time>2026-03-31T10:08:52Z</time></trkpt><trkpt lat="42.19879935539057" lon="-1.494919830001657"><ele>296.0</ele><time>2026-03-31T10:08:53Z</time></trkpt><trkpt lat="42.1989221736571" lon="-1.495043409759958"><ele>296.0</ele><time>2026-03-31T10:08:54Z</time></trkpt><trkpt lat="42.199045457310206" lon="-1.4951709506965727"><ele>296.0</ele><time>2026-03-31T10:08:55Z</time></trkpt><trkpt lat="42.19916846793087" lon="-1.4952961078422693"><ele>296.0</ele><time>2026-03-31T10:08:56Z</time></trkpt><trkpt lat="42.1992900949869" lon="-1.4954119848364873"><ele>296.5</ele><time>2026-03-31T10:08:57Z</time></trkpt><trkpt lat="42.199406786704316" lon="-1.4955224960679228"><ele>297.0</ele><time>2026-03-31T10:08:58Z</time></trkpt><trkpt lat="42.199516200362375" lon="-1.4956391182907482"><ele>297.5</ele><time>2026-03-31T10:08:59Z</time></trkpt><trkpt lat="42.19962860143792" lon="-1.4957625374552308"><ele>298.0</ele><time>2026-03-31T10:09:00Z</time></trkpt><trkpt lat="42.19974371888138" lon="-1.495880215319971"><ele>298.0</ele><time>2026-03-31T10:09:01Z</time></trkpt><trkpt lat="42.199855736639776" lon="-1.4959914394442486"><ele>298.0</ele><time>2026-03-31T10:09:02Z</time></trkpt><trkpt lat="42.199970861344156" lon="-1.4961025598736961"><ele>298.0</ele><time>2026-03-31T10:09:03Z</time></trkpt><trkpt lat="42.200084100210304" lon="-1.4962189180139136"><ele>298.0</ele><time>2026-03-31T10:09:04Z</time></trkpt><trkpt lat="42.20020080712364" lon="-1.4963395880726102"><ele>298.25</ele><time>2026-03-31T10:09:05Z</time></trkpt><trkpt lat="42.20031713814756" lon="-1.496457633914044"><ele>298.5</ele><time>2026-03-31T10:09:06Z</time></trkpt><trkpt lat="42.2004307646858" lon="-1.4965708981909394"><ele>298.75</ele><time>2026-03-31T10:09:07Z</time></trkpt><trkpt lat="42.20054487006045" lon="-1.4966831003943104"><ele>299.0</ele><time>2026-03-31T10:09:08Z</time></trkpt><trkpt lat="42.2006576945304" lon="-1.496800682780626"><ele>299.25</ele><time>2026-03-31T10:09:09Z</time></trkpt><trkpt lat="42.20076944948046" lon="-1.4969200501722049"><ele>299.5</ele><time>2026-03-31T10:09:10Z</time></trkpt><trkpt lat="42.2008861474731" lon="-1.497036976032803"><ele>299.75</ele><time>2026-03-31T10:09:11Z</time></trkpt><trkpt lat="42.2010023606993" lon="-1.497152706087086"><ele>300.0</ele><time>2026-03-31T10:09:12Z</time></trkpt><trkpt lat="42.20112220154244" lon="-1.4972726364727673"><ele>300.0</ele><time>2026-03-31T10:09:13Z</time></trkpt><trkpt lat="42.20123974168167" lon="-1.4973893477789293"><ele>300.0</ele><time>2026-03-31T10:09:14Z</time></trkpt><trkpt lat="42.20136303787943" lon="-1.4975124000377953"><ele>300.0</ele><time>2026-03-31T10:09:15Z</time></trkpt><trkpt lat="42.20148381062707" lon="-1.4976415184044973"><ele>301.0</ele><time>2026-03-31T10:09:16Z</time></trkpt><trkpt lat="42.201603602712865" lon="-1.497764456055695"><ele>302.0</ele><time>2026-03-31T10:09:17Z</time></trkpt><trkpt lat="42.20172791349129" lon="-1.4978826706491555"><ele>303.0</ele><time>2026-03-31T10:09:18Z</time></trkpt><trkpt lat="42.20184631431505" lon="-1.4980025395052108"><ele>303.5</ele><time>2026-03-31T10:09:19Z</time></trkpt><trkpt lat="42.20196472672499" lon="-1.4981251129226305"><ele>304.0</ele><time>2026-03-31T10:09:20Z</time></trkpt><trkpt lat="42.202076657669814" lon="-1.4982330574144904"><ele>304.5</ele><time>2026-03-31T10:09:21Z</time></trkpt><trkpt lat="42.20217202972892" lon="-1.498330065510303"><ele>305.0</ele><time>2026-03-31T10:09:22Z</time></trkpt><trkpt lat="42.20226343670011" lon="-1.4984251661330772"><ele>305.6</ele><time>2026-03-31T10:09:23Z</time></trkpt><trkpt lat="42.202353337698625" lon="-1.4985196490702368"><ele>306.2</ele><time>2026-03-31T10:09:24Z</time></trkpt><trkpt lat="42.20243077985745" lon="-1.4986059889399237"><ele>306.8</ele><time>2026-03-31T10:09:25Z</time></trkpt><trkpt lat="42.202495211295165" lon="-1.4986847296099457"><ele>307.4</ele><time>2026-03-31T10:09:26Z</time></trkpt><trkpt lat="42.2025618666694" lon="-1.49876832861202"><ele>308.0</ele><time>2026-03-31T10:09:27Z</time></trkpt><trkpt lat="42.20263526378249" lon="-1.49883822687217"><ele>308.0</ele><time>2026-03-31T10:09:28Z</time></trkpt><trkpt lat="42.20272283482336" lon="-1.4989000973944817"><ele>308.0</ele><time>2026-03-31T10:09:29Z</time></trkpt><trkpt lat="42.20280303951952" lon="-1.498979166756543"><ele>308.0</ele><time>2026-03-31T10:09:30Z</time></trkpt><trkpt lat="42.20288378633279" lon="-1.4990587705499268"><ele>308.0</ele><time>2026-03-31T10:09:31Z</time></trkpt><trkpt lat="42.2029523544399" lon="-1.4991461363909695"><ele>308.0</ele><time>2026-03-31T10:09:32Z</time></trkpt><trkpt lat="42.203030064951506" lon="-1.4992219072063557"><ele>308.0</ele><time>2026-03-31T10:09:33Z</time></trkpt><trkpt lat="42.20312599617206" lon="-1.4993190715005809"><ele>308.0</ele><time>2026-03-31T10:09:34Z</time></trkpt><trkpt lat="42.2032209827494" lon="-1.4994135994842386"><ele>308.0</ele><time>2026-03-31T10:09:35Z</time></trkpt><trkpt lat="42.20330359738837" lon="-1.499499393996895"><ele>308.0</ele><time>2026-03-31T10:09:36Z</time></trkpt><trkpt lat="42.20338497781778" lon="-1.4995760658545936"><ele>308.0</ele><time>2026-03-31T10:09:37Z</time></trkpt><trkpt lat="42.20346156977443" lon="-1.499648383655737"><ele>308.1666666666667</ele><time>2026-03-31T10:09:38Z</time></trkpt><trkpt lat="42.20352804433198" lon="-1.4997177110204392"><ele>308.33333333333337</ele><time>2026-03-31T10:09:39Z</time></trkpt><trkpt lat="42.20358788780636" lon="-1.4997794609859223"><ele>308.5</ele><time>2026-03-31T10:09:40Z</time></trkpt><trkpt lat="42.203647034800575" lon="-1.4998439101785617"><ele>308.6666666666667</ele><time>2026-03-31T10:09:41Z</time></trkpt><trkpt lat="42.20370670198069" lon="-1.4999066011467623"><ele>308.8333333333333</ele><time>2026-03-31T10:09:42Z</time></trkpt><trkpt lat="42.203794099898374" lon="-1.4999911631425151"><ele>309.0</ele><time>2026-03-31T10:09:44Z</time></trkpt><trkpt lat="42.20387849355378" lon="-1.5000723818001176"><ele>309.0</ele><time>2026-03-31T10:09:46Z</time></trkpt><trkpt lat="42.203954936050295" lon="-1.5001486004641267"><ele>309.0</ele><time>2026-03-31T10:09:48Z</time></trkpt><trkpt lat="42.20401494093008" lon="-1.5002111453166418"><ele>309.0</ele><time>2026-03-31T10:09:50Z</time></trkpt><trkpt lat="42.20408517356633" lon="-1.5002703955332675"><ele>309.0</ele><time>2026-03-31T10:09:52Z</time></trkpt><trkpt lat="42.20414988376866" lon="-1.5003210251108752"><ele>309.0</ele><time>2026-03-31T10:09:55Z</time></trkpt><trkpt lat="42.204221830469876" lon="-1.5003641091256859"><ele>309.0</ele><time>2026-03-31T10:09:59Z</time></trkpt><trkpt lat="42.20427204493916" lon="-1.5004280966768357"><ele>310.0</ele><time>2026-03-31T10:10:03Z</time></trkpt><trkpt lat="42.20434033821803" lon="-1.500505625444156"><ele>311.0</ele><time>2026-03-31T10:10:06Z</time></trkpt><trkpt lat="42.20441636132189" lon="-1.5005802783219855"><ele>312.0</ele><time>2026-03-31T10:10:09Z</time></trkpt><trkpt lat="42.20447406000738" lon="-1.5006285988512431"><ele>313.0</ele><time>2026-03-31T10:10:11Z</time></trkpt><trkpt lat="42.204530425658454" lon="-1.5006920633043443"><ele>314.0</ele><time>2026-03-31T10:10:13Z</time></trkpt><trkpt lat="42.204583354791254" lon="-1.5007443706419492"><ele>315.0</ele><time>2026-03-31T10:10:15Z</time></trkpt><trkpt lat="42.20465085888025" lon="-1.5007815871445171"><ele>315.0</ele><time>2026-03-31T10:10:19Z</time></trkpt><trkpt lat="42.20471740906762" lon="-1.5008301823293266"><ele>315.0</ele><time>2026-03-31T10:10:22Z</time></trkpt><trkpt lat="42.204667592388034" lon="-1.5008936615715849"><ele>315.0</ele><time>2026-03-31T10:13:41Z</time></trkpt><trkpt lat="42.20468469587011" lon="-1.500985302133555"><ele>315.0</ele><time>2026-03-31T10:14:24Z</time></trkpt><trkpt lat="42.204669475498356" lon="-1.500899918074085"><ele>315.0</ele><time>2026-03-31T10:15:51Z</time></trkpt><trkpt lat="42.2046982147272" lon="-1.5008118106236013"><ele>315.0</ele><time>2026-03-31T10:15:56Z</time></trkpt><trkpt lat="42.204748146971255" lon="-1.5008677624781948"><ele>315.0</ele><time>2026-03-31T10:18:25Z</time></trkpt><trkpt lat="42.204797191697374" lon="-1.5009362922362548"><ele>315.2</ele><time>2026-03-31T10:18:27Z</time></trkpt><trkpt lat="42.20485341828792" lon="-1.5010077527501"><ele>315.4</ele><time>2026-03-31T10:18:29Z</time></trkpt><trkpt lat="42.204926378340346" lon="-1.5010729026809326"><ele>315.6</ele><time>2026-03-31T10:18:31Z</time></trkpt><trkpt lat="42.20502832296037" lon="-1.5011855538439025"><ele>315.8</ele><time>2026-03-31T10:18:33Z</time></trkpt><trkpt lat="42.20512451939371" lon="-1.501290660217409"><ele>316.0</ele><time>2026-03-31T10:18:35Z</time></trkpt><trkpt lat="42.205172922790055" lon="-1.501359744566039"><ele>314.75</ele><time>2026-03-31T10:18:36Z</time></trkpt><trkpt lat="42.20522758180149" lon="-1.501452307954516"><ele>313.5</ele><time>2026-03-31T10:18:37Z</time></trkpt><trkpt lat="42.20528896348615" lon="-1.5015753605973414"><ele>312.25</ele><time>2026-03-31T10:18:38Z</time></trkpt><trkpt lat="42.20534824960373" lon="-1.501710452536603"><ele>311.0</ele><time>2026-03-31T10:18:39Z</time></trkpt><trkpt lat="42.20542552337227" lon="-1.501867692057833"><ele>311.0</ele><time>2026-03-31T10:18:40Z</time></trkpt><trkpt lat="42.205507788298384" lon="-1.5020374192806327"><ele>311.0</ele><time>2026-03-31T10:18:41Z</time></trkpt><trkpt lat="42.20559372447939" lon="-1.5022094965999835"><ele>311.0</ele><time>2026-03-31T10:18:42Z</time></trkpt><trkpt lat="42.205675761284944" lon="-1.5023873879650282"><ele>309.0</ele><time>2026-03-31T10:18:43Z</time></trkpt><trkpt lat="42.20575795201111" lon="-1.5025660650853385"><ele>307.0</ele><time>2026-03-31T10:18:44Z</time></trkpt><trkpt lat="42.20584238655477" lon="-1.5027397833457452"><ele>305.0</ele><time>2026-03-31T10:18:45Z</time></trkpt><trkpt lat="42.20592217866288" lon="-1.5029170647001249"><ele>304.33333333333337</ele><time>2026-03-31T10:18:46Z</time></trkpt><trkpt lat="42.20600493726079" lon="-1.503090779782181"><ele>303.6666666666667</ele><time>2026-03-31T10:18:47Z</time></trkpt><trkpt lat="42.206088670889926" lon="-1.5032626531371076"><ele>303.0</ele><time>2026-03-31T10:18:48Z</time></trkpt><trkpt lat="42.20617197177834" lon="-1.5034324494359272"><ele>303.0</ele><time>2026-03-31T10:18:49Z</time></trkpt><trkpt lat="42.206253596602416" lon="-1.5036014623951637"><ele>303.0</ele><time>2026-03-31T10:18:50Z</time></trkpt><trkpt lat="42.206334205214766" lon="-1.5037725737856389"><ele>303.0</ele><time>2026-03-31T10:18:51Z</time></trkpt><trkpt lat="42.206414750199755" lon="-1.5039450912836607"><ele>302.25</ele><time>2026-03-31T10:18:52Z</time></trkpt><trkpt lat="42.20649421263616" lon="-1.5041117563342228"><ele>301.5</ele><time>2026-03-31T10:18:53Z</time></trkpt><trkpt lat="42.20657108804681" lon="-1.5042804938467134"><ele>300.75</ele><time>2026-03-31T10:18:54Z</time></trkpt><trkpt lat="42.20665244951326" lon="-1.504449535906739"><ele>300.0</ele><time>2026-03-31T10:18:55Z</time></trkpt><trkpt lat="42.20674060376282" lon="-1.504619146023781"><ele>298.5</ele><time>2026-03-31T10:18:56Z</time></trkpt><trkpt lat="42.20682031858104" lon="-1.504785505998627"><ele>297.0</ele><time>2026-03-31T10:18:57Z</time></trkpt><trkpt lat="42.20689636639612" lon="-1.5049498471141975"><ele>295.5</ele><time>2026-03-31T10:18:58Z</time></trkpt><trkpt lat="42.20697949150468" lon="-1.5051105319604783"><ele>294.0</ele><time>2026-03-31T10:18:59Z</time></trkpt><trkpt lat="42.20705028876098" lon="-1.5052594586851846"><ele>294.0</ele><time>2026-03-31T10:19:00Z</time></trkpt><trkpt lat="42.20711815567926" lon="-1.5054110115004093"><ele>294.0</ele><time>2026-03-31T10:19:01Z</time></trkpt><trkpt lat="42.207184435635845" lon="-1.5055633140399203"><ele>294.0</ele><time>2026-03-31T10:19:02Z</time></trkpt><trkpt lat="42.20724141603996" lon="-1.5057236470271735"><ele>294.0</ele><time>2026-03-31T10:19:03Z</time></trkpt><trkpt lat="42.20729184052089" lon="-1.505891343869606"><ele>293.75</ele><time>2026-03-31T10:19:04Z</time></trkpt><trkpt lat="42.207325645149545" lon="-1.5060708425298963"><ele>293.5</ele><time>2026-03-31T10:19:05Z</time></trkpt><trkpt lat="42.207344774766135" lon="-1.5062607485108002"><ele>293.25</ele><time>2026-03-31T10:19:06Z</time></trkpt><trkpt lat="42.207350022723084" lon="-1.506453184153274"><ele>293.0</ele><time>2026-03-31T10:19:07Z</time></trkpt><trkpt lat="42.20734856852263" lon="-1.5066497714785216"><ele>293.0</ele><time>2026-03-31T10:19:08Z</time></trkpt><trkpt lat="42.207349352206585" lon="-1.5068464711886018"><ele>293.0</ele><time>2026-03-31T10:19:09Z</time></trkpt><trkpt lat="42.20733716596655" lon="-1.5070351162577607"><ele>293.0</ele><time>2026-03-31T10:19:10Z</time></trkpt><trkpt lat="42.20732413508908" lon="-1.507219106250388"><ele>293.0</ele><time>2026-03-31T10:19:11Z</time></trkpt><trkpt lat="42.20730131315166" lon="-1.5073967579485887"><ele>293.0</ele><time>2026-03-31T10:19:12Z</time></trkpt><trkpt lat="42.20726593818282" lon="-1.5075697672023418"><ele>293.0</ele><time>2026-03-31T10:19:13Z</time></trkpt><trkpt lat="42.20721814913934" lon="-1.507731900016677"><ele>293.0</ele><time>2026-03-31T10:19:14Z</time></trkpt><trkpt lat="42.207164905320624" lon="-1.5078835417095158"><ele>293.0</ele><time>2026-03-31T10:19:15Z</time></trkpt><trkpt lat="42.20712265101606" lon="-1.5080100564204635"><ele>293.1666666666667</ele><time>2026-03-31T10:19:16Z</time></trkpt><trkpt lat="42.207088862943024" lon="-1.5081243607117607"><ele>293.33333333333337</ele><time>2026-03-31T10:19:17Z</time></trkpt><trkpt lat="42.20706021670907" lon="-1.5082180425824447"><ele>293.5</ele><time>2026-03-31T10:19:18Z</time></trkpt><trkpt lat="42.207027916111386" lon="-1.5083152616493862"><ele>293.6666666666667</ele><time>2026-03-31T10:19:19Z</time></trkpt><trkpt lat="42.20699256147218" lon="-1.508414347938266"><ele>293.8333333333333</ele><time>2026-03-31T10:19:20Z</time></trkpt><trkpt lat="42.206962869249104" lon="-1.5084969300161395"><ele>294.0</ele><time>2026-03-31T10:19:21Z</time></trkpt><trkpt lat="42.2069336486575" lon="-1.5086137102213015"><ele>294.0</ele><time>2026-03-31T10:19:23Z</time></trkpt><trkpt lat="42.20693759671195" lon="-1.5087401713858235"><ele>294.0</ele><time>2026-03-31T10:19:25Z</time></trkpt><trkpt lat="42.206934006733135" lon="-1.5088847895036253"><ele>294.0</ele><time>2026-03-31T10:19:27Z</time></trkpt><trkpt lat="42.206967029420085" lon="-1.5090571517470335"><ele>294.0</ele><time>2026-03-31T10:19:29Z</time></trkpt><trkpt lat="42.20699750296329" lon="-1.5091570643418044"><ele>294.0</ele><time>2026-03-31T10:19:30Z</time></trkpt><trkpt lat="42.207039974537416" lon="-1.5092522408860356"><ele>294.0</ele><time>2026-03-31T10:19:31Z</time></trkpt><trkpt lat="42.20709097689617" lon="-1.5093536437098443"><ele>294.0</ele><time>2026-03-31T10:19:32Z</time></trkpt><trkpt lat="42.207157174918436" lon="-1.5094608610784197"><ele>294.0</ele><time>2026-03-31T10:19:33Z</time></trkpt><trkpt lat="42.20723099173215" lon="-1.5095862491550947"><ele>294.0</ele><time>2026-03-31T10:19:34Z</time></trkpt><trkpt lat="42.20731533957013" lon="-1.5097590019409728"><ele>297.0</ele><time>2026-03-31T10:19:35Z</time></trkpt><trkpt lat="42.207413173908364" lon="-1.5099558368945423"><ele>300.0</ele><time>2026-03-31T10:19:36Z</time></trkpt><trkpt lat="42.207516376508316" lon="-1.5101788335106807"><ele>303.0</ele><time>2026-03-31T10:19:37Z</time></trkpt><trkpt lat="42.207603468696625" lon="-1.5103638466694753"><ele>301.8</ele><time>2026-03-31T10:19:38Z</time></trkpt><trkpt lat="42.20767587127849" lon="-1.51051409202782"><ele>300.6</ele><time>2026-03-31T10:19:39Z</time></trkpt><trkpt lat="42.207730167961515" lon="-1.5106373524719081"><ele>299.4</ele><time>2026-03-31T10:19:40Z</time></trkpt><trkpt lat="42.20777865130095" lon="-1.5107536345772241"><ele>298.2</ele><time>2026-03-31T10:19:41Z</time></trkpt><trkpt lat="42.20782788524719" lon="-1.510875011438413"><ele>297.0</ele><time>2026-03-31T10:19:42Z</time></trkpt><trkpt lat="42.20787478230275" lon="-1.5110000226861366"><ele>297.0</ele><time>2026-03-31T10:19:43Z</time></trkpt><trkpt lat="42.20791928794835" lon="-1.5111288563419152"><ele>297.0</ele><time>2026-03-31T10:19:44Z</time></trkpt><trkpt lat="42.20796641040621" lon="-1.5112520453628984"><ele>297.0</ele><time>2026-03-31T10:19:45Z</time></trkpt><trkpt lat="42.20801428947563" lon="-1.51137183289648"><ele>297.0</ele><time>2026-03-31T10:19:46Z</time></trkpt><trkpt lat="42.208056985608025" lon="-1.5114753461712476"><ele>297.0</ele><time>2026-03-31T10:19:47Z</time></trkpt><trkpt lat="42.20809581676285" lon="-1.5115904620597571"><ele>297.2</ele><time>2026-03-31T10:19:48Z</time></trkpt><trkpt lat="42.20814419612677" lon="-1.511710839334304"><ele>297.4</ele><time>2026-03-31T10:19:49Z</time></trkpt><trkpt lat="42.20820401179679" lon="-1.5118241287191923"><ele>297.6</ele><time>2026-03-31T10:19:50Z</time></trkpt><trkpt lat="42.208247364679714" lon="-1.5119335596607717"><ele>297.8</ele><time>2026-03-31T10:19:51Z</time></trkpt><trkpt lat="42.20828071437325" lon="-1.5120610422396374"><ele>298.0</ele><time>2026-03-31T10:19:52Z</time></trkpt><trkpt lat="42.208331997903464" lon="-1.5121743271276247"><ele>297.6</ele><time>2026-03-31T10:19:53Z</time></trkpt><trkpt lat="42.20837656466671" lon="-1.5122856454071263"><ele>297.20000000000005</ele><time>2026-03-31T10:19:54Z</time></trkpt><trkpt lat="42.20842494352122" lon="-1.5124032089783326"><ele>296.8</ele><time>2026-03-31T10:19:55Z</time></trkpt><trkpt lat="42.20847715105077" lon="-1.5125067459043837"><ele>296.40000000000003</ele><time>2026-03-31T10:19:56Z</time></trkpt><trkpt lat="42.208523915108785" lon="-1.5126121410012885"><ele>296.0</ele><time>2026-03-31T10:19:57Z</time></trkpt><trkpt lat="42.20857032006948" lon="-1.5127274758311937"><ele>296.0</ele><time>2026-03-31T10:19:58Z</time></trkpt><trkpt lat="42.20861637646384" lon="-1.5128403409869877"><ele>296.0</ele><time>2026-03-31T10:19:59Z</time></trkpt><trkpt lat="42.208665997783946" lon="-1.5129618474649829"><ele>296.0</ele><time>2026-03-31T10:20:00Z</time></trkpt><trkpt lat="42.20871152749651" lon="-1.5130744950453356"><ele>296.0</ele><time>2026-03-31T10:20:01Z</time></trkpt><trkpt lat="42.208757790201744" lon="-1.5131943628079725"><ele>296.0</ele><time>2026-03-31T10:20:02Z</time></trkpt><trkpt lat="42.20881034082589" lon="-1.5133042668409946"><ele>295.83333333333337</ele><time>2026-03-31T10:20:03Z</time></trkpt><trkpt lat="42.20885854706856" lon="-1.5134193856369758"><ele>295.6666666666667</ele><time>2026-03-31T10:20:04Z</time></trkpt><trkpt lat="42.20890021597837" lon="-1.513524825371805"><ele>295.5</ele><time>2026-03-31T10:20:05Z</time></trkpt><trkpt lat="42.20893670071816" lon="-1.5136176618128159"><ele>295.3333333333333</ele><time>2026-03-31T10:20:06Z</time></trkpt><trkpt lat="42.208983402403774" lon="-1.5137130323557817"><ele>295.16666666666663</ele><time>2026-03-31T10:20:07Z</time></trkpt><trkpt lat="42.20902167859541" lon="-1.5137990770997398"><ele>295.0</ele><time>2026-03-31T10:20:08Z</time></trkpt><trkpt lat="42.20906604485513" lon="-1.5138947357262968"><ele>295.0</ele><time>2026-03-31T10:20:09Z</time></trkpt><trkpt lat="42.209103908117044" lon="-1.5139758615378858"><ele>295.0</ele><time>2026-03-31T10:20:10Z</time></trkpt><trkpt lat="42.20916061509464" lon="-1.5141292832631914"><ele>295.0</ele><time>2026-03-31T10:20:12Z</time></trkpt><trkpt lat="42.20920187086656" lon="-1.5142335783526282"><ele>295.0</ele><time>2026-03-31T10:20:13Z</time></trkpt><trkpt lat="42.20924767329205" lon="-1.5143319541044702"><ele>295.0</ele><time>2026-03-31T10:20:14Z</time></trkpt><trkpt lat="42.20928930989476" lon="-1.5144251879955404"><ele>295.0</ele><time>2026-03-31T10:20:15Z</time></trkpt><trkpt lat="42.20932422254091" lon="-1.5145021595728514"><ele>295.0</ele><time>2026-03-31T10:20:16Z</time></trkpt><trkpt lat="42.20938035033042" lon="-1.5146124713930549"><ele>295.0</ele><time>2026-03-31T10:20:18Z</time></trkpt><trkpt lat="42.209802487836406" lon="-1.5149170179379452"><ele>295.0</ele><time>2026-03-31T10:20:21Z</time></trkpt><trkpt lat="42.20959650815977" lon="-1.5140795921229924"><ele>295.0</ele><time>2026-03-31T10:20:41Z</time></trkpt><trkpt lat="42.20960392974142" lon="-1.5139782534015915"><ele>295.0</ele><time>2026-03-31T10:22:14Z</time></trkpt><trkpt lat="42.209654964335336" lon="-1.514041242001422"><ele>295.0</ele><time>2026-03-31T10:22:18Z</time></trkpt><trkpt lat="42.209624497745274" lon="-1.5141268203984868"><ele>295.0</ele><time>2026-03-31T10:22:21Z</time></trkpt><trkpt lat="42.20960718773516" lon="-1.5142244654765873"><ele>295.0</ele><time>2026-03-31T10:22:24Z</time></trkpt><trkpt lat="42.209561205118916" lon="-1.514306961557316"><ele>295.0</ele><time>2026-03-31T10:22:27Z</time></trkpt><trkpt lat="42.20952213715264" lon="-1.5144231223159899"><ele>295.0</ele><time>2026-03-31T10:22:30Z</time></trkpt><trkpt lat="42.20951251418546" lon="-1.5145297776275726"><ele>295.0</ele><time>2026-03-31T10:22:32Z</time></trkpt><trkpt lat="42.20948870544912" lon="-1.5146337645997592"><ele>295.0</ele><time>2026-03-31T10:22:34Z</time></trkpt><trkpt lat="42.20949900133898" lon="-1.5147540821781909"><ele>295.0</ele><time>2026-03-31T10:22:37Z</time></trkpt><trkpt lat="42.20953995205666" lon="-1.5148236996804787"><ele>295.0</ele><time>2026-03-31T10:22:39Z</time></trkpt><trkpt lat="42.209610584388905" lon="-1.5148803976322658"><ele>295.0</ele><time>2026-03-31T10:22:42Z</time></trkpt><trkpt lat="42.209688090934385" lon="-1.5149120525283677"><ele>295.0</ele><time>2026-03-31T10:22:45Z</time></trkpt><trkpt lat="42.209661228981524" lon="-1.5149907470908646"><ele>295.0</ele><time>2026-03-31T10:28:26Z</time></trkpt><trkpt lat="42.209570687561865" lon="-1.5149434272972804"><ele>295.0</ele><time>2026-03-31T10:28:28Z</time></trkpt><trkpt lat="42.209496763711" lon="-1.5148379297729404"><ele>295.0</ele><time>2026-03-31T10:28:30Z</time></trkpt><trkpt lat="42.20947416459511" lon="-1.514667556348849"><ele>295.0</ele><time>2026-03-31T10:28:32Z</time></trkpt><trkpt lat="42.209500694336015" lon="-1.5145644648232905"><ele>295.0</ele><time>2026-03-31T10:28:33Z</time></trkpt><trkpt lat="42.2095323270542" lon="-1.5144668390820322"><ele>295.0</ele><time>2026-03-31T10:28:34Z</time></trkpt><trkpt lat="42.2095792542882" lon="-1.5143328457808014"><ele>295.0</ele><time>2026-03-31T10:28:36Z</time></trkpt><trkpt lat="42.20960352532234" lon="-1.5142214661055102"><ele>295.0</ele><time>2026-03-31T10:28:38Z</time></trkpt><trkpt lat="42.209565266545226" lon="-1.51415046471952"><ele>295.0</ele><time>2026-03-31T10:30:11Z</time></trkpt><trkpt lat="42.2096070116559" lon="-1.5140636484325831"><ele>295.0</ele><time>2026-03-31T10:30:14Z</time></trkpt><trkpt lat="42.209675265882005" lon="-1.514014661303154"><ele>295.00000000000006</ele><time>2026-03-31T10:30:17Z</time></trkpt><trkpt lat="42.209642690474574" lon="-1.514088613785625"><ele>295.0</ele><time>2026-03-31T10:30:34Z</time></trkpt><trkpt lat="42.209635481975084" lon="-1.5141749678708603"><ele>295.0</ele><time>2026-03-31T10:30:56Z</time></trkpt><trkpt lat="42.20965520223788" lon="-1.5140791663464397"><ele>295.0</ele><time>2026-03-31T10:31:07Z</time></trkpt><trkpt lat="42.209581501200134" lon="-1.514078681569003"><ele>295.0</ele><time>2026-03-31T10:32:30Z</time></trkpt><trkpt lat="42.209641988277944" lon="-1.5140517239924265"><ele>295.00000000000006</ele><time>2026-03-31T10:32:51Z</time></trkpt><trkpt lat="42.209612375240766" lon="-1.5141357748484736"><ele>295.0</ele><time>2026-03-31T10:33:10Z</time></trkpt><trkpt lat="42.20962108898504" lon="-1.5140417012225553"><ele>295.00000000000006</ele><time>2026-03-31T10:33:17Z</time></trkpt><trkpt lat="42.209686336082264" lon="-1.5140393946179282"><ele>295.0</ele><time>2026-03-31T10:37:29Z</time></trkpt><trkpt lat="42.20961930275666" lon="-1.5140428762309397"><ele>295.0</ele><time>2026-03-31T10:37:39Z</time></trkpt><trkpt lat="42.20966992772695" lon="-1.5140967897918518"><ele>295.0</ele><time>2026-03-31T10:37:49Z</time></trkpt><trkpt lat="42.209582615191394" lon="-1.5140654862842122"><ele>295.0</ele><time>2026-03-31T10:42:17Z</time></trkpt><trkpt lat="42.20964591125228" lon="-1.5140501900215053"><ele>295.00000000000006</ele><time>2026-03-31T10:42:42Z</time></trkpt><trkpt lat="42.20961487569421" lon="-1.5141354972980747"><ele>295.0</ele><time>2026-03-31T10:43:04Z</time></trkpt><trkpt lat="42.20957473134541" lon="-1.514268984699037"><ele>295.0</ele><time>2026-03-31T10:44:15Z</time></trkpt><trkpt lat="42.20954044559974" lon="-1.5143702135812662"><ele>295.0</ele><time>2026-03-31T10:44:16Z</time></trkpt><trkpt lat="42.209515165977386" lon="-1.5144761424297657"><ele>295.0</ele><time>2026-03-31T10:44:17Z</time></trkpt><trkpt lat="42.20949553477445" lon="-1.5145710724556651"><ele>295.0</ele><time>2026-03-31T10:44:18Z</time></trkpt><trkpt lat="42.20947953086819" lon="-1.5146579651676506"><ele>295.0</ele><time>2026-03-31T10:44:19Z</time></trkpt><trkpt lat="42.2094918130368" lon="-1.5147817662799947"><ele>295.0</ele><time>2026-03-31T10:44:21Z</time></trkpt><trkpt lat="42.209571959149365" lon="-1.514886259716913"><ele>294.66666666666663</ele><time>2026-03-31T10:44:23Z</time></trkpt><trkpt lat="42.20965031725582" lon="-1.5149107232049617"><ele>294.3333333333333</ele><time>2026-03-31T10:44:24Z</time></trkpt><trkpt lat="42.209740888285225" lon="-1.5149134285472727"><ele>294.0</ele><time>2026-03-31T10:44:25Z</time></trkpt><trkpt lat="42.20982840805779" lon="-1.5148960313842519"><ele>293.6666666666667</ele><time>2026-03-31T10:44:26Z</time></trkpt><trkpt lat="42.20989429310566" lon="-1.5148640230561836"><ele>293.33333333333337</ele><time>2026-03-31T10:44:27Z</time></trkpt><trkpt lat="42.20994739226116" lon="-1.5148123631794435"><ele>293.0</ele><time>2026-03-31T10:44:28Z</time></trkpt><trkpt lat="42.21000890427679" lon="-1.5147240264908568"><ele>292.8</ele><time>2026-03-31T10:44:29Z</time></trkpt><trkpt lat="42.21007013956775" lon="-1.5146168587408102"><ele>292.6</ele><time>2026-03-31T10:44:30Z</time></trkpt><trkpt lat="42.210126309263984" lon="-1.5144966224455203"><ele>292.4</ele><time>2026-03-31T10:44:31Z</time></trkpt><trkpt lat="42.21018762558294" lon="-1.5143689165912142"><ele>292.2</ele><time>2026-03-31T10:44:32Z</time></trkpt><trkpt lat="42.210256232081925" lon="-1.5142395710632355"><ele>292.0</ele><time>2026-03-31T10:44:33Z</time></trkpt><trkpt lat="42.21033262475462" lon="-1.5141086137272355"><ele>292.0</ele><time>2026-03-31T10:44:34Z</time></trkpt><trkpt lat="42.21040359986124" lon="-1.513974463787418"><ele>292.0</ele><time>2026-03-31T10:44:35Z</time></trkpt><trkpt lat="42.21048727479269" lon="-1.5138317215535957"><ele>292.0</ele><time>2026-03-31T10:44:36Z</time></trkpt><trkpt lat="42.21058545887887" lon="-1.513657780873395"><ele>292.0</ele><time>2026-03-31T10:44:37Z</time></trkpt><trkpt lat="42.21067910855437" lon="-1.5134825066732294"><ele>292.0</ele><time>2026-03-31T10:44:38Z</time></trkpt><trkpt lat="42.210766801273195" lon="-1.5133252033082785"><ele>292.0</ele><time>2026-03-31T10:44:39Z</time></trkpt><trkpt lat="42.210846613334404" lon="-1.5131850676439047"><ele>292.0</ele><time>2026-03-31T10:44:40Z</time></trkpt><trkpt lat="42.210916790740114" lon="-1.513062141402546"><ele>292.0</ele><time>2026-03-31T10:44:41Z</time></trkpt><trkpt lat="42.21098910693376" lon="-1.512954447916695"><ele>291.8</ele><time>2026-03-31T10:44:42Z</time></trkpt><trkpt lat="42.2110662519187" lon="-1.512874581931576"><ele>291.6</ele><time>2026-03-31T10:44:43Z</time></trkpt><trkpt lat="42.211153393850054" lon="-1.5128126363360406"><ele>291.40000000000003</ele><time>2026-03-31T10:44:44Z</time></trkpt><trkpt lat="42.2112546712263" lon="-1.512767321889008"><ele>291.2</ele><time>2026-03-31T10:44:45Z</time></trkpt><trkpt lat="42.21137303552497" lon="-1.5127397351332599"><ele>291.0</ele><time>2026-03-31T10:44:46Z</time></trkpt><trkpt lat="42.21150510931398" lon="-1.5127308263228008"><ele>291.0</ele><time>2026-03-31T10:44:47Z</time></trkpt><trkpt lat="42.211638533681494" lon="-1.5127483845748524"><ele>291.0</ele><time>2026-03-31T10:44:48Z</time></trkpt><trkpt lat="42.2117706148198" lon="-1.5127810037515066"><ele>291.0</ele><time>2026-03-31T10:44:49Z</time></trkpt><trkpt lat="42.211898482208426" lon="-1.512826298708871"><ele>291.0</ele><time>2026-03-31T10:44:50Z</time></trkpt><trkpt lat="42.212037358690395" lon="-1.5128785897491244"><ele>290.25</ele><time>2026-03-31T10:44:51Z</time></trkpt><trkpt lat="42.21217833692835" lon="-1.5129233433541152"><ele>289.5</ele><time>2026-03-31T10:44:52Z</time></trkpt><trkpt lat="42.21232606440689" lon="-1.512960903447013"><ele>288.75</ele><time>2026-03-31T10:44:53Z</time></trkpt><trkpt lat="42.21246889718803" lon="-1.513002166539798"><ele>288.0</ele><time>2026-03-31T10:44:54Z</time></trkpt><trkpt lat="42.21261632630135" lon="-1.5130297771644825"><ele>286.75</ele><time>2026-03-31T10:44:55Z</time></trkpt><trkpt lat="42.212765403357984" lon="-1.5130574441816171"><ele>285.5</ele><time>2026-03-31T10:44:56Z</time></trkpt><trkpt lat="42.212900830991046" lon="-1.5130599395852882"><ele>284.25</ele><time>2026-03-31T10:44:57Z</time></trkpt><trkpt lat="42.213025779646735" lon="-1.5130535649435937"><ele>283.0</ele><time>2026-03-31T10:44:58Z</time></trkpt><trkpt lat="42.213151435953094" lon="-1.513032955547566"><ele>283.5</ele><time>2026-03-31T10:44:59Z</time></trkpt><trkpt lat="42.213277494142076" lon="-1.5129832312330742"><ele>284.0</ele><time>2026-03-31T10:45:00Z</time></trkpt><trkpt lat="42.21340698208685" lon="-1.5129121290005687"><ele>284.5</ele><time>2026-03-31T10:45:01Z</time></trkpt><trkpt lat="42.213551726998055" lon="-1.5128376336348255"><ele>285.0</ele><time>2026-03-31T10:45:02Z</time></trkpt><trkpt lat="42.21369698526513" lon="-1.5127968041016127"><ele>285.0</ele><time>2026-03-31T10:45:03Z</time></trkpt><trkpt lat="42.213839732100496" lon="-1.512772108553515"><ele>285.0</ele><time>2026-03-31T10:45:04Z</time></trkpt><trkpt lat="42.21397430386038" lon="-1.5127648011015686"><ele>285.0</ele><time>2026-03-31T10:45:05Z</time></trkpt><trkpt lat="42.214109837284745" lon="-1.5127665245068909"><ele>285.0</ele><time>2026-03-31T10:45:06Z</time></trkpt><trkpt lat="42.21423012106899" lon="-1.512768988067301"><ele>285.0</ele><time>2026-03-31T10:45:07Z</time></trkpt><trkpt lat="42.21434669387807" lon="-1.5127490318745709"><ele>285.0</ele><time>2026-03-31T10:45:08Z</time></trkpt><trkpt lat="42.21446106927146" lon="-1.5127108173276842"><ele>285.0</ele><time>2026-03-31T10:45:09Z</time></trkpt><trkpt lat="42.214580977844314" lon="-1.5126595764182333"><ele>285.0</ele><time>2026-03-31T10:45:10Z</time></trkpt><trkpt lat="42.21469818053297" lon="-1.512551646595441"><ele>286.3333333333333</ele><time>2026-03-31T10:45:11Z</time></trkpt><trkpt lat="42.21482155418635" lon="-1.5124294376233116"><ele>287.66666666666663</ele><time>2026-03-31T10:45:12Z</time></trkpt><trkpt lat="42.214953687300095" lon="-1.5123011811828082"><ele>289.0</ele><time>2026-03-31T10:45:13Z</time></trkpt><trkpt lat="42.21508147756254" lon="-1.5121509836347486"><ele>288.3333333333333</ele><time>2026-03-31T10:45:14Z</time></trkpt><trkpt lat="42.2152090906699" lon="-1.5120057682394665"><ele>287.6666666666667</ele><time>2026-03-31T10:45:15Z</time></trkpt><trkpt lat="42.21533577137915" lon="-1.511862214987238"><ele>287.0</ele><time>2026-03-31T10:45:16Z</time></trkpt><trkpt lat="42.21546069046825" lon="-1.5117212079488012"><ele>287.0</ele><time>2026-03-31T10:45:17Z</time></trkpt><trkpt lat="42.215586987009054" lon="-1.511580336038428"><ele>287.0</ele><time>2026-03-31T10:45:18Z</time></trkpt><trkpt lat="42.21571388325727" lon="-1.5114327891901187"><ele>287.0</ele><time>2026-03-31T10:45:19Z</time></trkpt><trkpt lat="42.21584023153787" lon="-1.511288851360424"><ele>287.6666666666667</ele><time>2026-03-31T10:45:20Z</time></trkpt><trkpt lat="42.21596284109752" lon="-1.5111496465474938"><ele>288.3333333333333</ele><time>2026-03-31T10:45:21Z</time></trkpt><trkpt lat="42.21608465164268" lon="-1.5110140009224444"><ele>289.0</ele><time>2026-03-31T10:45:22Z</time></trkpt><trkpt lat="42.216201588618205" lon="-1.5108846281413684"><ele>289.0</ele><time>2026-03-31T10:45:23Z</time></trkpt><trkpt lat="42.21632034568828" lon="-1.5107495465873455"><ele>289.0</ele><time>2026-03-31T10:45:24Z</time></trkpt><trkpt lat="42.2164340007493" lon="-1.5106180920285341"><ele>289.0</ele><time>2026-03-31T10:45:25Z</time></trkpt><trkpt lat="42.21655047618035" lon="-1.5104875131959243"><ele>289.66666666666663</ele><time>2026-03-31T10:45:26Z</time></trkpt><trkpt lat="42.21666592163941" lon="-1.5103571003699963"><ele>290.3333333333333</ele><time>2026-03-31T10:45:27Z</time></trkpt><trkpt lat="42.2167810897307" lon="-1.510228416677725"><ele>291.0</ele><time>2026-03-31T10:45:28Z</time></trkpt><trkpt lat="42.21689782112725" lon="-1.5100987078687556"><ele>291.0</ele><time>2026-03-31T10:45:29Z</time></trkpt><trkpt lat="42.2170171282109" lon="-1.5099627076837938"><ele>291.0</ele><time>2026-03-31T10:45:30Z</time></trkpt><trkpt lat="42.217138745332996" lon="-1.509822893291994"><ele>291.0</ele><time>2026-03-31T10:45:31Z</time></trkpt><trkpt lat="42.21726646200868" lon="-1.5096846473323766"><ele>291.0</ele><time>2026-03-31T10:45:32Z</time></trkpt><trkpt lat="42.21739238494601" lon="-1.5095413579677734"><ele>291.0</ele><time>2026-03-31T10:45:33Z</time></trkpt><trkpt lat="42.217517891471864" lon="-1.5093987133519944"><ele>291.0</ele><time>2026-03-31T10:45:34Z</time></trkpt><trkpt lat="42.217645243881336" lon="-1.5092577277206056"><ele>291.0</ele><time>2026-03-31T10:45:35Z</time></trkpt><trkpt lat="42.21777260427933" lon="-1.5091146269357565"><ele>291.0</ele><time>2026-03-31T10:45:36Z</time></trkpt><trkpt lat="42.217899361228056" lon="-1.5089703245288466"><ele>291.0</ele><time>2026-03-31T10:45:37Z</time></trkpt><trkpt lat="42.218031799332" lon="-1.5088230183647906"><ele>291.0</ele><time>2026-03-31T10:45:38Z</time></trkpt><trkpt lat="42.21816513858366" lon="-1.5086712071087556"><ele>291.0</ele><time>2026-03-31T10:45:39Z</time></trkpt><trkpt lat="42.21829902576984" lon="-1.5085154857941105"><ele>291.0</ele><time>2026-03-31T10:45:40Z</time></trkpt><trkpt lat="42.2184401769612" lon="-1.5083597588416275"><ele>291.0</ele><time>2026-03-31T10:45:41Z</time></trkpt><trkpt lat="42.218565342606134" lon="-1.508215349654359"><ele>291.0</ele><time>2026-03-31T10:45:42Z</time></trkpt><trkpt lat="42.218688412835874" lon="-1.5080812394201537"><ele>291.0</ele><time>2026-03-31T10:45:43Z</time></trkpt><trkpt lat="42.21881420592396" lon="-1.5079417113964444"><ele>291.0</ele><time>2026-03-31T10:45:44Z</time></trkpt><trkpt lat="42.21893743228137" lon="-1.5077915920227938"><ele>291.0</ele><time>2026-03-31T10:45:45Z</time></trkpt><trkpt lat="42.21906495659787" lon="-1.507656004444285"><ele>291.0</ele><time>2026-03-31T10:45:46Z</time></trkpt><trkpt lat="42.219194275109295" lon="-1.5075159959456197"><ele>291.0</ele><time>2026-03-31T10:45:47Z</time></trkpt><trkpt lat="42.21930753733311" lon="-1.507379436626674"><ele>291.0</ele><time>2026-03-31T10:45:48Z</time></trkpt><trkpt lat="42.21941994828126" lon="-1.5072324521590477"><ele>291.0</ele><time>2026-03-31T10:45:49Z</time></trkpt><trkpt lat="42.21953181930741" lon="-1.5070763650607635"><ele>291.0</ele><time>2026-03-31T10:45:50Z</time></trkpt><trkpt lat="42.219640643937566" lon="-1.5069021189111955"><ele>291.0</ele><time>2026-03-31T10:45:51Z</time></trkpt><trkpt lat="42.21973867237469" lon="-1.506726237251529"><ele>291.0</ele><time>2026-03-31T10:45:52Z</time></trkpt><trkpt lat="42.219837653543856" lon="-1.5065346282659353"><ele>291.3333333333333</ele><time>2026-03-31T10:45:53Z</time></trkpt><trkpt lat="42.219934693862335" lon="-1.5063292669874395"><ele>291.66666666666663</ele><time>2026-03-31T10:45:54Z</time></trkpt><trkpt lat="42.220021023865016" lon="-1.506157488786361"><ele>292.0</ele><time>2026-03-31T10:45:55Z</time></trkpt><trkpt lat="42.220095330758745" lon="-1.5059646152887531"><ele>291.3333333333333</ele><time>2026-03-31T10:45:56Z</time></trkpt><trkpt lat="42.22019580414894" lon="-1.5057571003129588"><ele>290.6666666666667</ele><time>2026-03-31T10:45:57Z</time></trkpt><trkpt lat="42.220327661242514" lon="-1.5055169592601174"><ele>290.0</ele><time>2026-03-31T10:45:58Z</time></trkpt><trkpt lat="42.22043776560783" lon="-1.5052562934567093"><ele>290.0</ele><time>2026-03-31T10:45:59Z</time></trkpt><trkpt lat="42.22054612306428" lon="-1.5050201950811304"><ele>290.0</ele><time>2026-03-31T10:46:00Z</time></trkpt><trkpt lat="42.2206528926343" lon="-1.504786365052198"><ele>290.0</ele><time>2026-03-31T10:46:01Z</time></trkpt><trkpt lat="42.22076809662179" lon="-1.504534069106276"><ele>290.33333333333337</ele><time>2026-03-31T10:46:02Z</time></trkpt><trkpt lat="42.22089623825837" lon="-1.50429634770249"><ele>290.6666666666667</ele><time>2026-03-31T10:46:03Z</time></trkpt><trkpt lat="42.221000772240764" lon="-1.504079410923732"><ele>291.0</ele><time>2026-03-31T10:46:04Z</time></trkpt><trkpt lat="42.221087234851616" lon="-1.5038553921182536"><ele>291.3333333333333</ele><time>2026-03-31T10:46:05Z</time></trkpt><trkpt lat="42.22117275830662" lon="-1.5036705644900683"><ele>291.66666666666663</ele><time>2026-03-31T10:46:06Z</time></trkpt><trkpt lat="42.22125650488359" lon="-1.5034937822193022"><ele>292.0</ele><time>2026-03-31T10:46:07Z</time></trkpt><trkpt lat="42.221340239642295" lon="-1.503319066551101"><ele>292.0</ele><time>2026-03-31T10:46:08Z</time></trkpt><trkpt lat="42.2214272943241" lon="-1.5031735248904472"><ele>292.0</ele><time>2026-03-31T10:46:09Z</time></trkpt><trkpt lat="42.22149211063052" lon="-1.503026772724133"><ele>292.0</ele><time>2026-03-31T10:46:10Z</time></trkpt><trkpt lat="42.221548334882485" lon="-1.5028982672596936"><ele>292.0</ele><time>2026-03-31T10:46:11Z</time></trkpt><trkpt lat="42.22160935504096" lon="-1.5027478759164308"><ele>292.0</ele><time>2026-03-31T10:46:12Z</time></trkpt><trkpt lat="42.22168619280293" lon="-1.502563502707133"><ele>292.0</ele><time>2026-03-31T10:46:13Z</time></trkpt><trkpt lat="42.22175185336401" lon="-1.502347900683272"><ele>292.0</ele><time>2026-03-31T10:46:14Z</time></trkpt><trkpt lat="42.221841063570366" lon="-1.5021483360724495"><ele>292.3333333333333</ele><time>2026-03-31T10:46:15Z</time></trkpt><trkpt lat="42.22191595146521" lon="-1.5019417237408264"><ele>292.6666666666667</ele><time>2026-03-31T10:46:16Z</time></trkpt><trkpt lat="42.22198810619486" lon="-1.5017309221260167"><ele>293.0</ele><time>2026-03-31T10:46:17Z</time></trkpt><trkpt lat="42.222060026119635" lon="-1.5015204798675148"><ele>293.0</ele><time>2026-03-31T10:46:18Z</time></trkpt><trkpt lat="42.222127895666056" lon="-1.5013255011865396"><ele>293.0</ele><time>2026-03-31T10:46:19Z</time></trkpt><trkpt lat="42.22219436640285" lon="-1.5011377515964752"><ele>293.0</ele><time>2026-03-31T10:46:20Z</time></trkpt><trkpt lat="42.22225850082989" lon="-1.5009532533982435"><ele>293.6666666666667</ele><time>2026-03-31T10:46:21Z</time></trkpt><trkpt lat="42.22232540693171" lon="-1.5007671359257588"><ele>294.3333333333333</ele><time>2026-03-31T10:46:22Z</time></trkpt><trkpt lat="42.2223982700897" lon="-1.5005761420388"><ele>295.0</ele><time>2026-03-31T10:46:23Z</time></trkpt><trkpt lat="42.22247759478801" lon="-1.5003704420645148"><ele>295.0</ele><time>2026-03-31T10:46:24Z</time></trkpt><trkpt lat="42.22253970575061" lon="-1.5001441130550348"><ele>295.0</ele><time>2026-03-31T10:46:25Z</time></trkpt><trkpt lat="42.22263630827783" lon="-1.4999275794199949"><ele>295.0</ele><time>2026-03-31T10:46:26Z</time></trkpt><trkpt lat="42.22271463799666" lon="-1.49970409661724"><ele>294.66666666666663</ele><time>2026-03-31T10:46:27Z</time></trkpt><trkpt lat="42.222796282506586" lon="-1.4994922893090101"><ele>294.3333333333333</ele><time>2026-03-31T10:46:28Z</time></trkpt><trkpt lat="42.22287654091979" lon="-1.4992740923734618"><ele>294.0</ele><time>2026-03-31T10:46:29Z</time></trkpt><trkpt lat="42.22295163855262" lon="-1.4990585906541627"><ele>294.0</ele><time>2026-03-31T10:46:30Z</time></trkpt><trkpt lat="42.2230285971826" lon="-1.4988455977289092"><ele>294.0</ele><time>2026-03-31T10:46:31Z</time></trkpt><trkpt lat="42.223098977335354" lon="-1.4986380013880312"><ele>294.0</ele><time>2026-03-31T10:46:32Z</time></trkpt><trkpt lat="42.22317720936642" lon="-1.4984301923024936"><ele>293.6666666666667</ele><time>2026-03-31T10:46:33Z</time></trkpt><trkpt lat="42.223256656778126" lon="-1.4982143766547615"><ele>293.33333333333337</ele><time>2026-03-31T10:46:34Z</time></trkpt><trkpt lat="42.22334025017254" lon="-1.4979892449192398"><ele>293.0</ele><time>2026-03-31T10:46:35Z</time></trkpt><trkpt lat="42.223426418621415" lon="-1.4977509057982785"><ele>293.0</ele><time>2026-03-31T10:46:36Z</time></trkpt><trkpt lat="42.22351613652361" lon="-1.4974954572426595"><ele>293.0</ele><time>2026-03-31T10:46:37Z</time></trkpt><trkpt lat="42.22360772177997" lon="-1.4972470797579593"><ele>293.0</ele><time>2026-03-31T10:46:38Z</time></trkpt><trkpt lat="42.22370295499156" lon="-1.496999150653784"><ele>293.33333333333337</ele><time>2026-03-31T10:46:39Z</time></trkpt><trkpt lat="42.2237965751503" lon="-1.4967497431663155"><ele>293.6666666666667</ele><time>2026-03-31T10:46:40Z</time></trkpt><trkpt lat="42.223890161856936" lon="-1.4964977396160495"><ele>294.0</ele><time>2026-03-31T10:46:41Z</time></trkpt><trkpt lat="42.223978724026026" lon="-1.4962474173540348"><ele>294.0</ele><time>2026-03-31T10:46:42Z</time></trkpt><trkpt lat="42.22406571129502" lon="-1.4959977680716028"><ele>294.0</ele><time>2026-03-31T10:46:43Z</time></trkpt><trkpt lat="42.22415541482138" lon="-1.4957389961453116"><ele>294.0</ele><time>2026-03-31T10:46:44Z</time></trkpt><trkpt lat="42.22424282831963" lon="-1.4954888829981021"><ele>294.3333333333333</ele><time>2026-03-31T10:46:45Z</time></trkpt><trkpt lat="42.224328982641964" lon="-1.495238678878705"><ele>294.66666666666663</ele><time>2026-03-31T10:46:46Z</time></trkpt><trkpt lat="42.22441595846399" lon="-1.494998503291142"><ele>295.0</ele><time>2026-03-31T10:46:47Z</time></trkpt><trkpt lat="42.22449611371895" lon="-1.4947720819561472"><ele>296.0</ele><time>2026-03-31T10:46:48Z</time></trkpt><trkpt lat="42.22457085275067" lon="-1.4945599340286622"><ele>297.0</ele><time>2026-03-31T10:46:49Z</time></trkpt><trkpt lat="42.22463706532649" lon="-1.4943734847688408"><ele>298.0</ele><time>2026-03-31T10:46:50Z</time></trkpt><trkpt lat="42.22470063755846" lon="-1.494194801692028"><ele>298.0</ele><time>2026-03-31T10:46:51Z</time></trkpt><trkpt lat="42.224761787992676" lon="-1.494031854286119"><ele>298.0</ele><time>2026-03-31T10:46:52Z</time></trkpt><trkpt lat="42.22482997761582" lon="-1.4938701012960007"><ele>298.0</ele><time>2026-03-31T10:46:53Z</time></trkpt><trkpt lat="42.22491751194846" lon="-1.4936980554039108"><ele>298.0</ele><time>2026-03-31T10:46:54Z</time></trkpt><trkpt lat="42.225021779203765" lon="-1.4935029234588395"><ele>297.66666666666663</ele><time>2026-03-31T10:46:55Z</time></trkpt><trkpt lat="42.22512346137992" lon="-1.49331905259739"><ele>297.3333333333333</ele><time>2026-03-31T10:46:56Z</time></trkpt><trkpt lat="42.22521884488516" lon="-1.4931607794982125"><ele>297.0</ele><time>2026-03-31T10:46:57Z</time></trkpt><trkpt lat="42.22530071234082" lon="-1.4930268326050409"><ele>297.2</ele><time>2026-03-31T10:46:58Z</time></trkpt><trkpt lat="42.22537323412151" lon="-1.4929123217719094"><ele>297.4</ele><time>2026-03-31T10:46:59Z</time></trkpt><trkpt lat="42.22543995948746" lon="-1.4928187042492536"><ele>297.6</ele><time>2026-03-31T10:47:00Z</time></trkpt><trkpt lat="42.225514358670054" lon="-1.4927460350749435"><ele>297.8</ele><time>2026-03-31T10:47:01Z</time></trkpt><trkpt lat="42.225623771767694" lon="-1.4926777676790777"><ele>298.0</ele><time>2026-03-31T10:47:02Z</time></trkpt><trkpt lat="42.22575474488481" lon="-1.4926166785235395"><ele>298.66666666666663</ele><time>2026-03-31T10:47:03Z</time></trkpt><trkpt lat="42.2259122234547" lon="-1.49256902738762"><ele>299.3333333333333</ele><time>2026-03-31T10:47:04Z</time></trkpt><trkpt lat="42.22608624757352" lon="-1.4925232933505306"><ele>300.0</ele><time>2026-03-31T10:47:05Z</time></trkpt><trkpt lat="42.22628301442247" lon="-1.4924900414853015"><ele>300.0</ele><time>2026-03-31T10:47:06Z</time></trkpt><trkpt lat="42.22646188920934" lon="-1.4924591034115078"><ele>300.0</ele><time>2026-03-31T10:47:07Z</time></trkpt><trkpt lat="42.226636580574045" lon="-1.4924298985278328"><ele>300.0</ele><time>2026-03-31T10:47:08Z</time></trkpt><trkpt lat="42.22679901199926" lon="-1.492404117494567"><ele>299.6666666666667</ele><time>2026-03-31T10:47:09Z</time></trkpt><trkpt lat="42.226968724371105" lon="-1.4923698710761402"><ele>299.33333333333337</ele><time>2026-03-31T10:47:10Z</time></trkpt><trkpt lat="42.22713695632122" lon="-1.4923425894677866"><ele>299.0</ele><time>2026-03-31T10:47:11Z</time></trkpt><trkpt lat="42.22731186909616" lon="-1.4923095462950964"><ele>299.6666666666667</ele><time>2026-03-31T10:47:12Z</time></trkpt><trkpt lat="42.22747980461011" lon="-1.4922814207921347"><ele>300.3333333333333</ele><time>2026-03-31T10:47:13Z</time></trkpt><trkpt lat="42.22762879667572" lon="-1.492256175180165"><ele>301.0</ele><time>2026-03-31T10:47:14Z</time></trkpt><trkpt lat="42.227761838048586" lon="-1.4922383150817213"><ele>301.0</ele><time>2026-03-31T10:47:15Z</time></trkpt><trkpt lat="42.22788986839306" lon="-1.492216051628884"><ele>301.0</ele><time>2026-03-31T10:47:16Z</time></trkpt><trkpt lat="42.228001670698426" lon="-1.4921793351757133"><ele>301.0</ele><time>2026-03-31T10:47:17Z</time></trkpt><trkpt lat="42.22809892622599" lon="-1.4921201088997111"><ele>301.0</ele><time>2026-03-31T10:47:18Z</time></trkpt><trkpt lat="42.228174069344945" lon="-1.4920457510132819"><ele>301.0</ele><time>2026-03-31T10:47:19Z</time></trkpt><trkpt lat="42.228243117661535" lon="-1.49191269820989"><ele>301.3333333333333</ele><time>2026-03-31T10:47:20Z</time></trkpt><trkpt lat="42.2283314752177" lon="-1.4917700728276633"><ele>301.6666666666667</ele><time>2026-03-31T10:47:21Z</time></trkpt><trkpt lat="42.228428142702526" lon="-1.4916037127063946"><ele>302.0</ele><time>2026-03-31T10:47:22Z</time></trkpt><trkpt lat="42.22854628863042" lon="-1.4914305120695863"><ele>302.33333333333337</ele><time>2026-03-31T10:47:23Z</time></trkpt><trkpt lat="42.22864927567884" lon="-1.4912471850180464"><ele>302.6666666666667</ele><time>2026-03-31T10:47:24Z</time></trkpt><trkpt lat="42.22875639952906" lon="-1.4910615874834932"><ele>303.0</ele><time>2026-03-31T10:47:25Z</time></trkpt><trkpt lat="42.22885971969167" lon="-1.4908750223289835"><ele>303.0</ele><time>2026-03-31T10:47:26Z</time></trkpt><trkpt lat="42.228971650029614" lon="-1.4906954466889306"><ele>303.0</ele><time>2026-03-31T10:47:27Z</time></trkpt><trkpt lat="42.22908235590103" lon="-1.4905051006410437"><ele>303.0</ele><time>2026-03-31T10:47:28Z</time></trkpt><trkpt lat="42.22918494981636" lon="-1.490315788979106"><ele>303.6666666666667</ele><time>2026-03-31T10:47:29Z</time></trkpt><trkpt lat="42.22929327262026" lon="-1.4901238570746167"><ele>304.33333333333337</ele><time>2026-03-31T10:47:30Z</time></trkpt><trkpt lat="42.22940667133765" lon="-1.4899315144263037"><ele>305.0</ele><time>2026-03-31T10:47:31Z</time></trkpt><trkpt lat="42.229508166941564" lon="-1.489755660112807"><ele>305.0</ele><time>2026-03-31T10:47:32Z</time></trkpt><trkpt lat="42.22960320304795" lon="-1.4895923289454054"><ele>305.0</ele><time>2026-03-31T10:47:33Z</time></trkpt><trkpt lat="42.22969092481547" lon="-1.4894325395482357"><ele>305.0</ele><time>2026-03-31T10:47:34Z</time></trkpt><trkpt lat="42.229777220077345" lon="-1.4892567321581807"><ele>306.0</ele><time>2026-03-31T10:47:35Z</time></trkpt><trkpt lat="42.22986215169524" lon="-1.4890492353254057"><ele>307.0</ele><time>2026-03-31T10:47:36Z</time></trkpt><trkpt lat="42.22994118551854" lon="-1.4888256204396093"><ele>308.0</ele><time>2026-03-31T10:47:37Z</time></trkpt><trkpt lat="42.230022255129924" lon="-1.4885656423504583"><ele>308.0</ele><time>2026-03-31T10:47:38Z</time></trkpt><trkpt lat="42.23009216628412" lon="-1.4883234975396664"><ele>308.0</ele><time>2026-03-31T10:47:39Z</time></trkpt><trkpt lat="42.23015443665284" lon="-1.4880724507102077"><ele>308.0</ele><time>2026-03-31T10:47:40Z</time></trkpt><trkpt lat="42.23020931923486" lon="-1.4878116530651606"><ele>308.0</ele><time>2026-03-31T10:47:41Z</time></trkpt><trkpt lat="42.23025548854328" lon="-1.4875451868692897"><ele>308.0</ele><time>2026-03-31T10:47:42Z</time></trkpt><trkpt lat="42.230276350002306" lon="-1.4872892326177665"><ele>308.0</ele><time>2026-03-31T10:47:43Z</time></trkpt><trkpt lat="42.23028520841797" lon="-1.4870342950400322"><ele>308.33333333333337</ele><time>2026-03-31T10:47:44Z</time></trkpt><trkpt lat="42.23028103078364" lon="-1.4867792930819927"><ele>308.6666666666667</ele><time>2026-03-31T10:47:45Z</time></trkpt><trkpt lat="42.230264666633886" lon="-1.4865460840273295"><ele>309.0</ele><time>2026-03-31T10:47:46Z</time></trkpt><trkpt lat="42.23021692676983" lon="-1.4863364642982797"><ele>310.0</ele><time>2026-03-31T10:47:47Z</time></trkpt><trkpt lat="42.23016365961971" lon="-1.4861233687904916"><ele>311.0</ele><time>2026-03-31T10:47:48Z</time></trkpt><trkpt lat="42.23009661854822" lon="-1.4859001611921812"><ele>312.0</ele><time>2026-03-31T10:47:49Z</time></trkpt><trkpt lat="42.23000216976283" lon="-1.4856485888465354"><ele>312.3333333333333</ele><time>2026-03-31T10:47:50Z</time></trkpt><trkpt lat="42.229901561168624" lon="-1.485402674058352"><ele>312.66666666666663</ele><time>2026-03-31T10:47:51Z</time></trkpt><trkpt lat="42.22978820097186" lon="-1.4851792634764756"><ele>313.0</ele><time>2026-03-31T10:47:52Z</time></trkpt><trkpt lat="42.22966086990339" lon="-1.4849611811195436"><ele>311.66666666666663</ele><time>2026-03-31T10:47:53Z</time></trkpt><trkpt lat="42.22951779869307" lon="-1.48474764996985"><ele>310.3333333333333</ele><time>2026-03-31T10:47:54Z</time></trkpt><trkpt lat="42.22937786234541" lon="-1.4845181786956156"><ele>309.0</ele><time>2026-03-31T10:47:55Z</time></trkpt><trkpt lat="42.22922188986597" lon="-1.4843041733744513"><ele>309.0</ele><time>2026-03-31T10:47:56Z</time></trkpt><trkpt lat="42.22906785726345" lon="-1.4840877592116333"><ele>309.0</ele><time>2026-03-31T10:47:57Z</time></trkpt><trkpt lat="42.22892098799031" lon="-1.4838753690192563"><ele>309.0</ele><time>2026-03-31T10:47:58Z</time></trkpt><trkpt lat="42.228764205472075" lon="-1.4836839080842068"><ele>308.0</ele><time>2026-03-31T10:47:59Z</time></trkpt><trkpt lat="42.228628237498576" lon="-1.4834929359266502"><ele>307.0</ele><time>2026-03-31T10:48:00Z</time></trkpt><trkpt lat="42.22850551098561" lon="-1.4832817396195745"><ele>306.0</ele><time>2026-03-31T10:48:01Z</time></trkpt><trkpt lat="42.228377105945604" lon="-1.4830971169419807"><ele>306.3333333333333</ele><time>2026-03-31T10:48:02Z</time></trkpt><trkpt lat="42.22825718143411" lon="-1.4829204448543067"><ele>306.66666666666663</ele><time>2026-03-31T10:48:03Z</time></trkpt><trkpt lat="42.22813638291053" lon="-1.4827410690203453"><ele>307.0</ele><time>2026-03-31T10:48:04Z</time></trkpt><trkpt lat="42.228017544839446" lon="-1.4825702104711493"><ele>306.25</ele><time>2026-03-31T10:48:05Z</time></trkpt><trkpt lat="42.227904927511126" lon="-1.482415152580572"><ele>305.5</ele><time>2026-03-31T10:48:06Z</time></trkpt><trkpt lat="42.22780581785292" lon="-1.4822755214772443"><ele>304.75</ele><time>2026-03-31T10:48:07Z</time></trkpt><trkpt lat="42.22771595434888" lon="-1.4821469706586152"><ele>304.0</ele><time>2026-03-31T10:48:08Z</time></trkpt><trkpt lat="42.22764230922188" lon="-1.4820357330586438"><ele>304.0</ele><time>2026-03-31T10:48:09Z</time></trkpt><trkpt lat="42.22756972189173" lon="-1.481935295256453"><ele>304.0</ele><time>2026-03-31T10:48:10Z</time></trkpt><trkpt lat="42.22750158185501" lon="-1.48183723899258"><ele>304.0</ele><time>2026-03-31T10:48:11Z</time></trkpt><trkpt lat="42.227435012369355" lon="-1.481739340929597"><ele>304.0</ele><time>2026-03-31T10:48:12Z</time></trkpt><trkpt lat="42.22737716367278" lon="-1.4816497221455514"><ele>304.0</ele><time>2026-03-31T10:48:13Z</time></trkpt><trkpt lat="42.2273198786897" lon="-1.4815621053493724"><ele>304.0</ele><time>2026-03-31T10:48:14Z</time></trkpt><trkpt lat="42.22726326071408" lon="-1.4814861924722547"><ele>304.0</ele><time>2026-03-31T10:48:15Z</time></trkpt><trkpt lat="42.22721363191446" lon="-1.481412947912696"><ele>304.0</ele><time>2026-03-31T10:48:16Z</time></trkpt><trkpt lat="42.22717728048726" lon="-1.481322255367654"><ele>304.0</ele><time>2026-03-31T10:48:17Z</time></trkpt><trkpt lat="42.227138264958" lon="-1.4812401666339996"><ele>304.0</ele><time>2026-03-31T10:48:18Z</time></trkpt><trkpt lat="42.22710072242359" lon="-1.481154212330649"><ele>304.0</ele><time>2026-03-31T10:48:19Z</time></trkpt><trkpt lat="42.22706682693566" lon="-1.4810682955621213"><ele>304.0</ele><time>2026-03-31T10:48:20Z</time></trkpt><trkpt lat="42.22703623382793" lon="-1.4809752785565689"><ele>304.0</ele><time>2026-03-31T10:48:21Z</time></trkpt><trkpt lat="42.22701377009322" lon="-1.4808902638279342"><ele>304.0</ele><time>2026-03-31T10:48:22Z</time></trkpt><trkpt lat="42.2269905836331" lon="-1.480771950225781"><ele>304.0</ele><time>2026-03-31T10:48:24Z</time></trkpt><trkpt lat="42.22696866703933" lon="-1.4806655966826914"><ele>304.0</ele><time>2026-03-31T10:48:26Z</time></trkpt><trkpt lat="42.22692750001682" lon="-1.4804821690523313"><ele>304.0</ele><time>2026-03-31T10:48:56Z</time></trkpt><trkpt lat="42.22689699944968" lon="-1.4803307329075592"><ele>304.0</ele><time>2026-03-31T10:48:57Z</time></trkpt><trkpt lat="42.22686327348225" lon="-1.4801607696522416"><ele>304.0</ele><time>2026-03-31T10:48:58Z</time></trkpt><trkpt lat="42.226824943722285" lon="-1.4799626894676343"><ele>304.0</ele><time>2026-03-31T10:48:59Z</time></trkpt><trkpt lat="42.22677299540971" lon="-1.4796902071901903"><ele>303.3333333333333</ele><time>2026-03-31T10:49:00Z</time></trkpt><trkpt lat="42.22671703481332" lon="-1.4793919592712128"><ele>302.6666666666667</ele><time>2026-03-31T10:49:01Z</time></trkpt><trkpt lat="42.226666976081596" lon="-1.4791251664367568"><ele>302.0</ele><time>2026-03-31T10:49:02Z</time></trkpt><trkpt lat="42.226640030254956" lon="-1.4788886941022645"><ele>302.5</ele><time>2026-03-31T10:49:03Z</time></trkpt><trkpt lat="42.22660148755181" lon="-1.4786826159710778"><ele>303.0</ele><time>2026-03-31T10:49:04Z</time></trkpt><trkpt lat="42.22657175821144" lon="-1.478502474673358"><ele>303.5</ele><time>2026-03-31T10:49:05Z</time></trkpt><trkpt lat="42.22654755736628" lon="-1.4783345771277867"><ele>304.0</ele><time>2026-03-31T10:49:06Z</time></trkpt><trkpt lat="42.22653330577024" lon="-1.4781788083208591"><ele>304.0</ele><time>2026-03-31T10:49:07Z</time></trkpt><trkpt lat="42.226505024042964" lon="-1.478033160892492"><ele>304.0</ele><time>2026-03-31T10:49:08Z</time></trkpt><trkpt lat="42.2265117291917" lon="-1.4778717770685252"><ele>304.0</ele><time>2026-03-31T10:49:09Z</time></trkpt><trkpt lat="42.22651501518978" lon="-1.4777121573852168"><ele>304.0</ele><time>2026-03-31T10:49:10Z</time></trkpt><trkpt lat="42.22653106915059" lon="-1.4775583121029487"><ele>304.0</ele><time>2026-03-31T10:49:11Z</time></trkpt><trkpt lat="42.22655763899211" lon="-1.4774035535336534"><ele>304.0</ele><time>2026-03-31T10:49:12Z</time></trkpt><trkpt lat="42.22657910392727" lon="-1.477254779356633"><ele>304.0</ele><time>2026-03-31T10:49:13Z</time></trkpt><trkpt lat="42.22661828091927" lon="-1.4770989775080883"><ele>304.0</ele><time>2026-03-31T10:49:14Z</time></trkpt><trkpt lat="42.226658394398115" lon="-1.4769377839091538"><ele>304.0</ele><time>2026-03-31T10:49:15Z</time></trkpt><trkpt lat="42.22669533494782" lon="-1.476763882221851"><ele>304.0</ele><time>2026-03-31T10:49:16Z</time></trkpt><trkpt lat="42.22672897441059" lon="-1.476587598848529"><ele>304.0</ele><time>2026-03-31T10:49:17Z</time></trkpt><trkpt lat="42.22675448837371" lon="-1.4764073090219711"><ele>304.0</ele><time>2026-03-31T10:49:18Z</time></trkpt><trkpt lat="42.22677836114702" lon="-1.4762203876632845"><ele>304.0</ele><time>2026-03-31T10:49:19Z</time></trkpt><trkpt lat="42.226771545803274" lon="-1.4760279298259067"><ele>304.0</ele><time>2026-03-31T10:49:20Z</time></trkpt><trkpt lat="42.226764441559425" lon="-1.4758361116074719"><ele>304.0</ele><time>2026-03-31T10:49:21Z</time></trkpt><trkpt lat="42.22673144010547" lon="-1.4756432376942548"><ele>304.0</ele><time>2026-03-31T10:49:22Z</time></trkpt><trkpt lat="42.226687108061064" lon="-1.4754558816474765"><ele>304.25</ele><time>2026-03-31T10:49:23Z</time></trkpt><trkpt lat="42.226630320668754" lon="-1.4752714985759683"><ele>304.5</ele><time>2026-03-31T10:49:24Z</time></trkpt><trkpt lat="42.22655647763129" lon="-1.4751087160211136"><ele>304.75</ele><time>2026-03-31T10:49:25Z</time></trkpt><trkpt lat="42.2264426539709" lon="-1.4749814161539132"><ele>305.0</ele><time>2026-03-31T10:49:26Z</time></trkpt><trkpt lat="42.22632537594544" lon="-1.4748267859313262"><ele>304.0</ele><time>2026-03-31T10:49:27Z</time></trkpt><trkpt lat="42.22619594646566" lon="-1.4746561341410696"><ele>303.0</ele><time>2026-03-31T10:49:28Z</time></trkpt><trkpt lat="42.226069903049535" lon="-1.474458766256541"><ele>302.0</ele><time>2026-03-31T10:49:29Z</time></trkpt><trkpt lat="42.22593110125943" lon="-1.4743027225797523"><ele>302.0</ele><time>2026-03-31T10:49:30Z</time></trkpt><trkpt lat="42.22580657395747" lon="-1.4741364958744363"><ele>302.0</ele><time>2026-03-31T10:49:31Z</time></trkpt><trkpt lat="42.22568608237051" lon="-1.4739756563437612"><ele>302.0</ele><time>2026-03-31T10:49:32Z</time></trkpt><trkpt lat="42.225575608320895" lon="-1.473829273281565"><ele>302.33333333333337</ele><time>2026-03-31T10:49:33Z</time></trkpt><trkpt lat="42.22545844944313" lon="-1.4736743027289008"><ele>302.6666666666667</ele><time>2026-03-31T10:49:34Z</time></trkpt><trkpt lat="42.22533017455241" lon="-1.473501249414535"><ele>303.0</ele><time>2026-03-31T10:49:35Z</time></trkpt><trkpt lat="42.22518967174104" lon="-1.4733127296862791"><ele>303.0</ele><time>2026-03-31T10:49:36Z</time></trkpt><trkpt lat="42.225056708522644" lon="-1.4731060307549995"><ele>303.0</ele><time>2026-03-31T10:49:37Z</time></trkpt><trkpt lat="42.22490782705113" lon="-1.4729261084476126"><ele>303.0</ele><time>2026-03-31T10:49:38Z</time></trkpt><trkpt lat="42.22477126700617" lon="-1.4727301899456884"><ele>303.3333333333333</ele><time>2026-03-31T10:49:39Z</time></trkpt><trkpt lat="42.224624762855704" lon="-1.4725365788091878"><ele>303.66666666666663</ele><time>2026-03-31T10:49:40Z</time></trkpt><trkpt lat="42.22447204683395" lon="-1.4723355608540778"><ele>304.0</ele><time>2026-03-31T10:49:41Z</time></trkpt><trkpt lat="42.22432325790252" lon="-1.472133541091211"><ele>304.0</ele><time>2026-03-31T10:49:42Z</time></trkpt><trkpt lat="42.224169684628606" lon="-1.4719203071447962"><ele>304.0</ele><time>2026-03-31T10:49:43Z</time></trkpt><trkpt lat="42.22401373728803" lon="-1.4717120164748279"><ele>304.0</ele><time>2026-03-31T10:49:44Z</time></trkpt><trkpt lat="42.223857576757624" lon="-1.4715025222689617"><ele>304.0</ele><time>2026-03-31T10:49:45Z</time></trkpt><trkpt lat="42.22370464670833" lon="-1.4712901479486347"><ele>304.0</ele><time>2026-03-31T10:49:46Z</time></trkpt><trkpt lat="42.223550499143265" lon="-1.471074691893948"><ele>304.0</ele><time>2026-03-31T10:49:47Z</time></trkpt><trkpt lat="42.22338663151321" lon="-1.4708521854438312"><ele>304.0</ele><time>2026-03-31T10:49:48Z</time></trkpt><trkpt lat="42.223227675347566" lon="-1.4706364113379844"><ele>304.0</ele><time>2026-03-31T10:49:49Z</time></trkpt><trkpt lat="42.22305562175673" lon="-1.470402073557474"><ele>305.0</ele><time>2026-03-31T10:49:50Z</time></trkpt><trkpt lat="42.22287639442425" lon="-1.4701618903595761"><ele>306.0</ele><time>2026-03-31T10:49:51Z</time></trkpt><trkpt lat="42.22268432909783" lon="-1.4699106619713163"><ele>306.0</ele><time>2026-03-31T10:49:52Z</time></trkpt><trkpt lat="42.22249170317222" lon="-1.4696621403531034"><ele>306.0</ele><time>2026-03-31T10:49:53Z</time></trkpt><trkpt lat="42.2223123562313" lon="-1.4694263305890172"><ele>306.5</ele><time>2026-03-31T10:49:54Z</time></trkpt><trkpt lat="42.22214311861201" lon="-1.4692037619526608"><ele>307.0</ele><time>2026-03-31T10:49:55Z</time></trkpt><trkpt lat="42.221986234998695" lon="-1.46899232426587"><ele>307.0</ele><time>2026-03-31T10:49:56Z</time></trkpt><trkpt lat="42.22183930756181" lon="-1.4687946145451982"><ele>307.0</ele><time>2026-03-31T10:49:57Z</time></trkpt><trkpt lat="42.22170094003014" lon="-1.46860851355444"><ele>307.0</ele><time>2026-03-31T10:49:58Z</time></trkpt><trkpt lat="42.22157014653087" lon="-1.468433079140106"><ele>306.66666666666663</ele><time>2026-03-31T10:49:59Z</time></trkpt><trkpt lat="42.22145263196535" lon="-1.4682723547725063"><ele>306.3333333333333</ele><time>2026-03-31T10:50:00Z</time></trkpt><trkpt lat="42.22134048563924" lon="-1.4681128906846848"><ele>306.0</ele><time>2026-03-31T10:50:01Z</time></trkpt><trkpt lat="42.22124623980218" lon="-1.4679554606251355"><ele>306.0</ele><time>2026-03-31T10:50:02Z</time></trkpt><trkpt lat="42.221177002603376" lon="-1.4677918261582834"><ele>306.0</ele><time>2026-03-31T10:50:03Z</time></trkpt><trkpt lat="42.22111704965729" lon="-1.4675914427615202"><ele>306.0</ele><time>2026-03-31T10:50:04Z</time></trkpt><trkpt lat="42.22104912697411" lon="-1.4673448010936287"><ele>306.3333333333333</ele><time>2026-03-31T10:50:05Z</time></trkpt><trkpt lat="42.22097324940581" lon="-1.467067769579035"><ele>306.66666666666663</ele><time>2026-03-31T10:50:06Z</time></trkpt><trkpt lat="42.220879264616215" lon="-1.466805484041226"><ele>307.0</ele><time>2026-03-31T10:50:07Z</time></trkpt><trkpt lat="42.22076096557026" lon="-1.466552281482558"><ele>306.3333333333333</ele><time>2026-03-31T10:50:08Z</time></trkpt><trkpt lat="42.220620520184895" lon="-1.4662996196424696"><ele>305.6666666666667</ele><time>2026-03-31T10:50:09Z</time></trkpt><trkpt lat="42.22048578069105" lon="-1.4660728873941178"><ele>305.0</ele><time>2026-03-31T10:50:10Z</time></trkpt><trkpt lat="42.22036110208565" lon="-1.4658853640301395"><ele>305.0</ele><time>2026-03-31T10:50:11Z</time></trkpt><trkpt lat="42.22023566954522" lon="-1.4657225995318452"><ele>305.0</ele><time>2026-03-31T10:50:12Z</time></trkpt><trkpt lat="42.22008331116151" lon="-1.4655970831129137"><ele>305.0</ele><time>2026-03-31T10:50:13Z</time></trkpt><trkpt lat="42.219909126431936" lon="-1.4654792106488452"><ele>302.5</ele><time>2026-03-31T10:50:14Z</time></trkpt><trkpt lat="42.219710366393706" lon="-1.465342003863766"><ele>300.0</ele><time>2026-03-31T10:50:15Z</time></trkpt><trkpt lat="42.219492608343145" lon="-1.4651885550460206"><ele>300.0</ele><time>2026-03-31T10:50:16Z</time></trkpt><trkpt lat="42.21926979096002" lon="-1.4650281250757198"><ele>300.0</ele><time>2026-03-31T10:50:17Z</time></trkpt><trkpt lat="42.21904169748276" lon="-1.464877914740763"><ele>299.6666666666667</ele><time>2026-03-31T10:50:18Z</time></trkpt><trkpt lat="42.218847571896724" lon="-1.4647344895442442"><ele>299.33333333333337</ele><time>2026-03-31T10:50:19Z</time></trkpt><trkpt lat="42.21867326744058" lon="-1.4646053530608496"><ele>299.0</ele><time>2026-03-31T10:50:20Z</time></trkpt><trkpt lat="42.21851281712943" lon="-1.464473298674666"><ele>299.0</ele><time>2026-03-31T10:50:21Z</time></trkpt><trkpt lat="42.21835840938025" lon="-1.4643617310410535"><ele>299.0</ele><time>2026-03-31T10:50:22Z</time></trkpt><trkpt lat="42.21823705888754" lon="-1.4642067595675066"><ele>299.0</ele><time>2026-03-31T10:50:23Z</time></trkpt><trkpt lat="42.21813952176452" lon="-1.4640131178964668"><ele>299.0</ele><time>2026-03-31T10:50:24Z</time></trkpt><trkpt lat="42.21801065451092" lon="-1.4638238159626964"><ele>299.0</ele><time>2026-03-31T10:50:25Z</time></trkpt><trkpt lat="42.21788864206881" lon="-1.463593563151698"><ele>299.0</ele><time>2026-03-31T10:50:26Z</time></trkpt><trkpt lat="42.21778198894977" lon="-1.463346943875058"><ele>299.6666666666667</ele><time>2026-03-31T10:50:27Z</time></trkpt><trkpt lat="42.21767005781542" lon="-1.4631299188160476"><ele>300.3333333333333</ele><time>2026-03-31T10:50:28Z</time></trkpt><trkpt lat="42.21754718744866" lon="-1.4629079223327102"><ele>301.0</ele><time>2026-03-31T10:50:29Z</time></trkpt><trkpt lat="42.21743905332947" lon="-1.4626875425470223"><ele>301.0</ele><time>2026-03-31T10:50:30Z</time></trkpt><trkpt lat="42.21732528339131" lon="-1.4624656210829825"><ele>301.0</ele><time>2026-03-31T10:50:31Z</time></trkpt><trkpt lat="42.217217898489956" lon="-1.4622571905688413"><ele>301.0</ele><time>2026-03-31T10:50:32Z</time></trkpt><trkpt lat="42.21711824825341" lon="-1.4620591374333356"><ele>301.0</ele><time>2026-03-31T10:50:33Z</time></trkpt><trkpt lat="42.217015100096255" lon="-1.4618606109061363"><ele>301.0</ele><time>2026-03-31T10:50:34Z</time></trkpt><trkpt lat="42.2169111648606" lon="-1.4616852145665902"><ele>301.0</ele><time>2026-03-31T10:50:35Z</time></trkpt><trkpt lat="42.2167951511196" lon="-1.4615149000411036"><ele>301.0</ele><time>2026-03-31T10:50:36Z</time></trkpt><trkpt lat="42.21666857463913" lon="-1.461352508843732"><ele>301.0</ele><time>2026-03-31T10:50:37Z</time></trkpt><trkpt lat="42.216536145359136" lon="-1.4611948970424742"><ele>301.0</ele><time>2026-03-31T10:50:38Z</time></trkpt><trkpt lat="42.216408715970076" lon="-1.4610371195487317"><ele>300.66666666666663</ele><time>2026-03-31T10:50:39Z</time></trkpt><trkpt lat="42.216284394563985" lon="-1.460875417708258"><ele>300.3333333333333</ele><time>2026-03-31T10:50:40Z</time></trkpt><trkpt lat="42.21615823571066" lon="-1.460720122264553"><ele>300.0</ele><time>2026-03-31T10:50:41Z</time></trkpt><trkpt lat="42.21602416994517" lon="-1.460560482822961"><ele>300.3333333333333</ele><time>2026-03-31T10:50:42Z</time></trkpt><trkpt lat="42.21588993172843" lon="-1.4603938790975084"><ele>300.66666666666663</ele><time>2026-03-31T10:50:43Z</time></trkpt><trkpt lat="42.215763721320464" lon="-1.460224659500991"><ele>301.0</ele><time>2026-03-31T10:50:44Z</time></trkpt><trkpt lat="42.215648032939214" lon="-1.4600585902136867"><ele>301.0</ele><time>2026-03-31T10:50:45Z</time></trkpt><trkpt lat="42.21553792758618" lon="-1.4598824228184653"><ele>301.0</ele><time>2026-03-31T10:50:46Z</time></trkpt><trkpt lat="42.21543575256871" lon="-1.4596999164072337"><ele>301.0</ele><time>2026-03-31T10:50:47Z</time></trkpt><trkpt lat="42.215330430011036" lon="-1.4595109243951332"><ele>301.66666666666663</ele><time>2026-03-31T10:50:48Z</time></trkpt><trkpt lat="42.21522227592001" lon="-1.4593213430065657"><ele>302.3333333333333</ele><time>2026-03-31T10:50:49Z</time></trkpt><trkpt lat="42.21511411926297" lon="-1.4591330184221312"><ele>303.0</ele><time>2026-03-31T10:50:50Z</time></trkpt><trkpt lat="42.21500589409097" lon="-1.4589417300452656"><ele>302.6666666666667</ele><time>2026-03-31T10:50:51Z</time></trkpt><trkpt lat="42.21490572397522" lon="-1.4587568622955125"><ele>302.33333333333337</ele><time>2026-03-31T10:50:52Z</time></trkpt><trkpt lat="42.21481039077262" lon="-1.4585769090150884"><ele>302.0</ele><time>2026-03-31T10:50:53Z</time></trkpt><trkpt lat="42.21471698958867" lon="-1.4583988798988776"><ele>302.0</ele><time>2026-03-31T10:50:54Z</time></trkpt><trkpt lat="42.21462558090582" lon="-1.4582409797699316"><ele>302.0</ele><time>2026-03-31T10:50:55Z</time></trkpt><trkpt lat="42.214537474000544" lon="-1.458088388038453"><ele>302.0</ele><time>2026-03-31T10:50:56Z</time></trkpt><trkpt lat="42.21445223073089" lon="-1.4579465045717679"><ele>302.0</ele><time>2026-03-31T10:50:57Z</time></trkpt><trkpt lat="42.21435710613165" lon="-1.457820006673476"><ele>302.25</ele><time>2026-03-31T10:50:58Z</time></trkpt><trkpt lat="42.21424546624617" lon="-1.4577091969996818"><ele>302.5</ele><time>2026-03-31T10:50:59Z</time></trkpt><trkpt lat="42.21412063755941" lon="-1.4576178595561542"><ele>302.75</ele><time>2026-03-31T10:51:00Z</time></trkpt><trkpt lat="42.213984069065695" lon="-1.4575455674435456"><ele>303.0</ele><time>2026-03-31T10:51:01Z</time></trkpt><trkpt lat="42.213847993704555" lon="-1.4574873661568075"><ele>303.0</ele><time>2026-03-31T10:51:02Z</time></trkpt><trkpt lat="42.21371638897728" lon="-1.4574081656784579"><ele>303.0</ele><time>2026-03-31T10:51:03Z</time></trkpt><trkpt lat="42.21358821502777" lon="-1.457301452131856"><ele>303.0</ele><time>2026-03-31T10:51:04Z</time></trkpt><trkpt lat="42.213461463885125" lon="-1.4571618288757544"><ele>302.6666666666667</ele><time>2026-03-31T10:51:05Z</time></trkpt><trkpt lat="42.213321335564416" lon="-1.4569847990864537"><ele>302.33333333333337</ele><time>2026-03-31T10:51:06Z</time></trkpt><trkpt lat="42.21317438921716" lon="-1.4567782058825607"><ele>302.0</ele><time>2026-03-31T10:51:07Z</time></trkpt><trkpt lat="42.213013667940885" lon="-1.4565521801051793"><ele>301.0</ele><time>2026-03-31T10:51:08Z</time></trkpt><trkpt lat="42.212848575860605" lon="-1.4563313124753798"><ele>300.0</ele><time>2026-03-31T10:51:09Z</time></trkpt><trkpt lat="42.21267976419255" lon="-1.4561186670458284"><ele>300.0</ele><time>2026-03-31T10:51:10Z</time></trkpt><trkpt lat="42.2125216796365" lon="-1.4559174102137493"><ele>300.0</ele><time>2026-03-31T10:51:11Z</time></trkpt><trkpt lat="42.21235905363159" lon="-1.4557020320107616"><ele>300.0</ele><time>2026-03-31T10:51:12Z</time></trkpt><trkpt lat="42.212200346727194" lon="-1.4554920705238659"><ele>300.6666666666667</ele><time>2026-03-31T10:51:13Z</time></trkpt><trkpt lat="42.21205009274834" lon="-1.4552931296116498"><ele>301.33333333333337</ele><time>2026-03-31T10:51:14Z</time></trkpt><trkpt lat="42.21189470362486" lon="-1.455089684605629"><ele>302.0</ele><time>2026-03-31T10:51:15Z</time></trkpt><trkpt lat="42.21174418476532" lon="-1.45489135098742"><ele>302.0</ele><time>2026-03-31T10:51:16Z</time></trkpt><trkpt lat="42.21161071540536" lon="-1.4547125777290684"><ele>302.0</ele><time>2026-03-31T10:51:17Z</time></trkpt><trkpt lat="42.2114797867028" lon="-1.454529862099598"><ele>302.0</ele><time>2026-03-31T10:51:18Z</time></trkpt><trkpt lat="42.211349654705785" lon="-1.4543402164589962"><ele>302.6666666666667</ele><time>2026-03-31T10:51:19Z</time></trkpt><trkpt lat="42.211232884771164" lon="-1.454166648352575"><ele>303.3333333333333</ele><time>2026-03-31T10:51:20Z</time></trkpt><trkpt lat="42.211120558070895" lon="-1.4540016025783051"><ele>304.0</ele><time>2026-03-31T10:51:21Z</time></trkpt><trkpt lat="42.21100988000497" lon="-1.4538478532195311"><ele>303.66666666666663</ele><time>2026-03-31T10:51:22Z</time></trkpt><trkpt lat="42.2109021726194" lon="-1.4536979296774895"><ele>303.3333333333333</ele><time>2026-03-31T10:51:23Z</time></trkpt><trkpt lat="42.21079829137761" lon="-1.453553686174361"><ele>303.0</ele><time>2026-03-31T10:51:24Z</time></trkpt><trkpt lat="42.210684757573894" lon="-1.453405879308068"><ele>303.0</ele><time>2026-03-31T10:51:25Z</time></trkpt><trkpt lat="42.21056875184247" lon="-1.4532474305472445"><ele>303.0</ele><time>2026-03-31T10:51:26Z</time></trkpt><trkpt lat="42.21045174436706" lon="-1.4530926735370766"><ele>303.0</ele><time>2026-03-31T10:51:27Z</time></trkpt><trkpt lat="42.21031812651088" lon="-1.4529541661850387"><ele>302.3333333333333</ele><time>2026-03-31T10:51:28Z</time></trkpt><trkpt lat="42.210199851408255" lon="-1.4527934489549632"><ele>301.66666666666663</ele><time>2026-03-31T10:51:29Z</time></trkpt><trkpt lat="42.21007863459627" lon="-1.4526305208584578"><ele>301.0</ele><time>2026-03-31T10:51:30Z</time></trkpt><trkpt lat="42.209951465947746" lon="-1.4524595928625161"><ele>301.0</ele><time>2026-03-31T10:51:31Z</time></trkpt><trkpt lat="42.20982383607578" lon="-1.4522880449399906"><ele>301.0</ele><time>2026-03-31T10:51:32Z</time></trkpt><trkpt lat="42.20969826052005" lon="-1.4521169470864113"><ele>301.0</ele><time>2026-03-31T10:51:33Z</time></trkpt><trkpt lat="42.20957940289996" lon="-1.4519306261843754"><ele>301.0</ele><time>2026-03-31T10:51:34Z</time></trkpt><trkpt lat="42.20945163804111" lon="-1.4517648557108975"><ele>301.0</ele><time>2026-03-31T10:51:35Z</time></trkpt><trkpt lat="42.209325525563244" lon="-1.4515913708025974"><ele>301.0</ele><time>2026-03-31T10:51:36Z</time></trkpt><trkpt lat="42.20918322969159" lon="-1.4514370949554187"><ele>301.3333333333333</ele><time>2026-03-31T10:51:37Z</time></trkpt><trkpt lat="42.209046743184786" lon="-1.4512611545324183"><ele>301.6666666666667</ele><time>2026-03-31T10:51:38Z</time></trkpt><trkpt lat="42.20890757274179" lon="-1.4510817543337315"><ele>302.0</ele><time>2026-03-31T10:51:39Z</time></trkpt><trkpt lat="42.208767265630485" lon="-1.4509008888920698"><ele>302.0</ele><time>2026-03-31T10:51:40Z</time></trkpt><trkpt lat="42.2086273799545" lon="-1.4507178608469335"><ele>302.0</ele><time>2026-03-31T10:51:41Z</time></trkpt><trkpt lat="42.20848524884722" lon="-1.4505308489484898"><ele>302.0</ele><time>2026-03-31T10:51:42Z</time></trkpt><trkpt lat="42.2083467908129" lon="-1.4503471586063854"><ele>303.0</ele><time>2026-03-31T10:51:43Z</time></trkpt><trkpt lat="42.20820690007976" lon="-1.4501598164193197"><ele>304.0</ele><time>2026-03-31T10:51:44Z</time></trkpt><trkpt lat="42.20807323093785" lon="-1.449952935959494"><ele>305.0</ele><time>2026-03-31T10:51:45Z</time></trkpt><trkpt lat="42.2079287334129" lon="-1.4497597532921946"><ele>306.33333333333337</ele><time>2026-03-31T10:51:46Z</time></trkpt><trkpt lat="42.2077881006556" lon="-1.449569152324389"><ele>307.6666666666667</ele><time>2026-03-31T10:51:47Z</time></trkpt><trkpt lat="42.20764934719116" lon="-1.4493841027025927"><ele>309.0</ele><time>2026-03-31T10:51:48Z</time></trkpt><trkpt lat="42.20751173354209" lon="-1.4491991389603522"><ele>309.0</ele><time>2026-03-31T10:51:49Z</time></trkpt><trkpt lat="42.207377347539826" lon="-1.4490215908859645"><ele>309.0</ele><time>2026-03-31T10:51:50Z</time></trkpt><trkpt lat="42.207221705127154" lon="-1.4488511120774232"><ele>309.0</ele><time>2026-03-31T10:51:51Z</time></trkpt><trkpt lat="42.20707967471211" lon="-1.4486409591210325"><ele>308.3333333333333</ele><time>2026-03-31T10:51:52Z</time></trkpt><trkpt lat="42.20692430370863" lon="-1.4484408398020596"><ele>307.66666666666663</ele><time>2026-03-31T10:51:53Z</time></trkpt><trkpt lat="42.206768213613174" lon="-1.4482334750708437"><ele>307.0</ele><time>2026-03-31T10:51:54Z</time></trkpt><trkpt lat="42.206616554843635" lon="-1.4480273034568059"><ele>307.0</ele><time>2026-03-31T10:51:55Z</time></trkpt><trkpt lat="42.206451804912845" lon="-1.4478380456180469"><ele>307.0</ele><time>2026-03-31T10:51:56Z</time></trkpt><trkpt lat="42.2063091732384" lon="-1.4476136621356892"><ele>307.0</ele><time>2026-03-31T10:51:57Z</time></trkpt><trkpt lat="42.20615920534011" lon="-1.4474022634985968"><ele>307.0</ele><time>2026-03-31T10:51:58Z</time></trkpt><trkpt lat="42.20601949347213" lon="-1.4471847065277463"><ele>307.0</ele><time>2026-03-31T10:51:59Z</time></trkpt><trkpt lat="42.20587743195204" lon="-1.4469921706440654"><ele>307.0</ele><time>2026-03-31T10:52:00Z</time></trkpt><trkpt lat="42.2057338528159" lon="-1.4467811979377876"><ele>308.3333333333333</ele><time>2026-03-31T10:52:01Z</time></trkpt><trkpt lat="42.205581662414595" lon="-1.4465935645843537"><ele>309.6666666666667</ele><time>2026-03-31T10:52:02Z</time></trkpt><trkpt lat="42.205413756591504" lon="-1.4463740266445633"><ele>311.0</ele><time>2026-03-31T10:52:03Z</time></trkpt><trkpt lat="42.205270170359064" lon="-1.4461669899375988"><ele>311.33333333333337</ele><time>2026-03-31T10:52:04Z</time></trkpt><trkpt lat="42.20511672817922" lon="-1.445973371951415"><ele>311.6666666666667</ele><time>2026-03-31T10:52:05Z</time></trkpt><trkpt lat="42.20496228447173" lon="-1.4457840218252371"><ele>312.0</ele><time>2026-03-31T10:52:06Z</time></trkpt><trkpt lat="42.20479862145404" lon="-1.4455841465051"><ele>313.5</ele><time>2026-03-31T10:52:07Z</time></trkpt><trkpt lat="42.20463058692906" lon="-1.44536667769673"><ele>315.0</ele><time>2026-03-31T10:52:08Z</time></trkpt><trkpt lat="42.204449158432105" lon="-1.4451317378624848"><ele>315.0</ele><time>2026-03-31T10:52:09Z</time></trkpt><trkpt lat="42.20425658670849" lon="-1.4448902521316231"><ele>315.0</ele><time>2026-03-31T10:52:10Z</time></trkpt><trkpt lat="42.20405957145475" lon="-1.4446369295920125"><ele>315.0</ele><time>2026-03-31T10:52:11Z</time></trkpt><trkpt lat="42.2038559460365" lon="-1.4443584371331144"><ele>315.0</ele><time>2026-03-31T10:52:12Z</time></trkpt><trkpt lat="42.20364063929214" lon="-1.4440635927485335"><ele>315.5</ele><time>2026-03-31T10:52:13Z</time></trkpt><trkpt lat="42.20341333692341" lon="-1.4437488096763376"><ele>316.0</ele><time>2026-03-31T10:52:14Z</time></trkpt><trkpt lat="42.20318989375512" lon="-1.4434366211713587"><ele>316.0</ele><time>2026-03-31T10:52:15Z</time></trkpt><trkpt lat="42.20297095090653" lon="-1.4431269195653884"><ele>316.0</ele><time>2026-03-31T10:52:16Z</time></trkpt><trkpt lat="42.20276242029936" lon="-1.4428316333778983"><ele>316.0</ele><time>2026-03-31T10:52:17Z</time></trkpt><trkpt lat="42.20255704035002" lon="-1.44254956627433"><ele>316.0</ele><time>2026-03-31T10:52:18Z</time></trkpt><trkpt lat="42.20235406089462" lon="-1.4422724650085479"><ele>315.0</ele><time>2026-03-31T10:52:19Z</time></trkpt><trkpt lat="42.20216240041253" lon="-1.4420070318463947"><ele>314.0</ele><time>2026-03-31T10:52:20Z</time></trkpt><trkpt lat="42.20197160421058" lon="-1.4417314351631616"><ele>314.0</ele><time>2026-03-31T10:52:21Z</time></trkpt><trkpt lat="42.20178868948901" lon="-1.4414638024272892"><ele>314.0</ele><time>2026-03-31T10:52:22Z</time></trkpt><trkpt lat="42.201603774306" lon="-1.4412337177417986"><ele>315.5</ele><time>2026-03-31T10:52:23Z</time></trkpt><trkpt lat="42.201452172386354" lon="-1.4409899476216628"><ele>317.0</ele><time>2026-03-31T10:52:24Z</time></trkpt><trkpt lat="42.20129987886211" lon="-1.4407741313204028"><ele>317.0</ele><time>2026-03-31T10:52:25Z</time></trkpt><trkpt lat="42.20115723382898" lon="-1.4405648894455945"><ele>317.0</ele><time>2026-03-31T10:52:26Z</time></trkpt><trkpt lat="42.20100405157071" lon="-1.440344707750663"><ele>317.0</ele><time>2026-03-31T10:52:27Z</time></trkpt><trkpt lat="42.20085257912854" lon="-1.440140702604324"><ele>317.0</ele><time>2026-03-31T10:52:28Z</time></trkpt><trkpt lat="42.20068836449963" lon="-1.4399316936809505"><ele>317.0</ele><time>2026-03-31T10:52:29Z</time></trkpt><trkpt lat="42.2005326539355" lon="-1.4397127582823641"><ele>317.5</ele><time>2026-03-31T10:52:30Z</time></trkpt><trkpt lat="42.2003637242679" lon="-1.4394836552458539"><ele>318.0</ele><time>2026-03-31T10:52:31Z</time></trkpt><trkpt lat="42.20020368016533" lon="-1.4392637746802777"><ele>318.0</ele><time>2026-03-31T10:52:32Z</time></trkpt><trkpt lat="42.20005386617673" lon="-1.439052911057994"><ele>318.0</ele><time>2026-03-31T10:52:33Z</time></trkpt><trkpt lat="42.19989949181753" lon="-1.4388763291193132"><ele>318.0</ele><time>2026-03-31T10:52:34Z</time></trkpt><trkpt lat="42.1997608445163" lon="-1.4386902199445157"><ele>318.6666666666667</ele><time>2026-03-31T10:52:35Z</time></trkpt><trkpt lat="42.199620662290464" lon="-1.4384993795045231"><ele>319.33333333333337</ele><time>2026-03-31T10:52:36Z</time></trkpt><trkpt lat="42.19951359875914" lon="-1.438294846694037"><ele>320.0</ele><time>2026-03-31T10:52:37Z</time></trkpt><trkpt lat="42.1993849532735" lon="-1.4381120751410046"><ele>319.6666666666667</ele><time>2026-03-31T10:52:38Z</time></trkpt><trkpt lat="42.199254299642995" lon="-1.4379261162433459"><ele>319.3333333333333</ele><time>2026-03-31T10:52:39Z</time></trkpt><trkpt lat="42.19912371825778" lon="-1.437751176306585"><ele>319.0</ele><time>2026-03-31T10:52:40Z</time></trkpt><trkpt lat="42.19898668438948" lon="-1.437575847130301"><ele>319.0</ele><time>2026-03-31T10:52:41Z</time></trkpt><trkpt lat="42.19886892108542" lon="-1.437420343624333"><ele>319.0</ele><time>2026-03-31T10:52:42Z</time></trkpt><trkpt lat="42.19876836855311" lon="-1.437271540973111"><ele>319.0</ele><time>2026-03-31T10:52:43Z</time></trkpt><trkpt lat="42.19867959104011" lon="-1.437120891590549"><ele>320.3333333333333</ele><time>2026-03-31T10:52:44Z</time></trkpt><trkpt lat="42.19861805165582" lon="-1.4369599970653097"><ele>321.6666666666667</ele><time>2026-03-31T10:52:45Z</time></trkpt><trkpt lat="42.19857244329173" lon="-1.4367614840022294"><ele>323.0</ele><time>2026-03-31T10:52:46Z</time></trkpt><trkpt lat="42.19853674802538" lon="-1.436523195279387"><ele>324.33333333333337</ele><time>2026-03-31T10:52:47Z</time></trkpt><trkpt lat="42.19850711582759" lon="-1.4362514989687138"><ele>325.6666666666667</ele><time>2026-03-31T10:52:48Z</time></trkpt><trkpt lat="42.198480922667635" lon="-1.43596755163454"><ele>327.0</ele><time>2026-03-31T10:52:49Z</time></trkpt><trkpt lat="42.198462923365476" lon="-1.435670171108705"><ele>328.6666666666667</ele><time>2026-03-31T10:52:50Z</time></trkpt><trkpt lat="42.19844746792833" lon="-1.435394399616378"><ele>330.33333333333337</ele><time>2026-03-31T10:52:51Z</time></trkpt><trkpt lat="42.198438776991196" lon="-1.43515409567764"><ele>332.0</ele><time>2026-03-31T10:52:52Z</time></trkpt><trkpt lat="42.19844125920864" lon="-1.4349399101676306"><ele>332.0</ele><time>2026-03-31T10:52:53Z</time></trkpt><trkpt lat="42.198443330779305" lon="-1.4347460627684172"><ele>332.0</ele><time>2026-03-31T10:52:54Z</time></trkpt><trkpt lat="42.19845450972677" lon="-1.4345533447370127"><ele>332.0</ele><time>2026-03-31T10:52:55Z</time></trkpt><trkpt lat="42.19845788835182" lon="-1.434356341536025"><ele>332.0</ele><time>2026-03-31T10:52:56Z</time></trkpt><trkpt lat="42.19844889574089" lon="-1.4341608799376497"><ele>333.0</ele><time>2026-03-31T10:52:57Z</time></trkpt><trkpt lat="42.19842998436253" lon="-1.433970944001322"><ele>334.0</ele><time>2026-03-31T10:52:58Z</time></trkpt><trkpt lat="42.19840978418374" lon="-1.4337851286423413"><ele>335.0</ele><time>2026-03-31T10:52:59Z</time></trkpt><trkpt lat="42.198381804381555" lon="-1.4335973593747577"><ele>336.0</ele><time>2026-03-31T10:53:00Z</time></trkpt><trkpt lat="42.198345775938584" lon="-1.4334081474665514"><ele>336.0</ele><time>2026-03-31T10:53:01Z</time></trkpt><trkpt lat="42.19830348318146" lon="-1.4332066259609149"><ele>336.0</ele><time>2026-03-31T10:53:02Z</time></trkpt><trkpt lat="42.198248923809096" lon="-1.4330042974236454"><ele>336.0</ele><time>2026-03-31T10:53:03Z</time></trkpt><trkpt lat="42.19819070206413" lon="-1.4327966279202986"><ele>335.3333333333333</ele><time>2026-03-31T10:53:04Z</time></trkpt><trkpt lat="42.19813249294081" lon="-1.4325947458732253"><ele>334.66666666666663</ele><time>2026-03-31T10:53:05Z</time></trkpt><trkpt lat="42.19807132409858" lon="-1.4324095210718635"><ele>334.0</ele><time>2026-03-31T10:53:06Z</time></trkpt><trkpt lat="42.19801115218758" lon="-1.4322347648851994"><ele>334.0</ele><time>2026-03-31T10:53:07Z</time></trkpt><trkpt lat="42.197956621862296" lon="-1.432045644088595"><ele>334.0</ele><time>2026-03-31T10:53:08Z</time></trkpt><trkpt lat="42.197895452437955" lon="-1.4318501788511926"><ele>334.0</ele><time>2026-03-31T10:53:09Z</time></trkpt><trkpt lat="42.197820790649615" lon="-1.4316275852235967"><ele>334.0</ele><time>2026-03-31T10:53:10Z</time></trkpt><trkpt lat="42.19774856719367" lon="-1.4313796955039042"><ele>334.0</ele><time>2026-03-31T10:53:11Z</time></trkpt><trkpt lat="42.19767894179351" lon="-1.4311211713272451"><ele>334.0</ele><time>2026-03-31T10:53:12Z</time></trkpt><trkpt lat="42.19761119567676" lon="-1.430893680608373"><ele>334.0</ele><time>2026-03-31T10:53:13Z</time></trkpt><trkpt lat="42.19754027651613" lon="-1.4306807607052252"><ele>334.0</ele><time>2026-03-31T10:53:14Z</time></trkpt><trkpt lat="42.19746729646481" lon="-1.430464236907617"><ele>334.0</ele><time>2026-03-31T10:53:15Z</time></trkpt><trkpt lat="42.197381579558744" lon="-1.4302600685476385"><ele>334.66666666666663</ele><time>2026-03-31T10:53:16Z</time></trkpt><trkpt lat="42.19728508469799" lon="-1.4300784145636556"><ele>335.3333333333333</ele><time>2026-03-31T10:53:17Z</time></trkpt><trkpt lat="42.19718315090401" lon="-1.4299151600708306"><ele>336.0</ele><time>2026-03-31T10:53:18Z</time></trkpt><trkpt lat="42.19709856578525" lon="-1.429750329591424"><ele>337.25</ele><time>2026-03-31T10:53:19Z</time></trkpt><trkpt lat="42.19703830737339" lon="-1.4295881444008451"><ele>338.5</ele><time>2026-03-31T10:53:20Z</time></trkpt><trkpt lat="42.196987053810055" lon="-1.4294298498167648"><ele>339.75</ele><time>2026-03-31T10:53:21Z</time></trkpt><trkpt lat="42.19694131851785" lon="-1.4292392887752607"><ele>341.0</ele><time>2026-03-31T10:53:22Z</time></trkpt><trkpt lat="42.19690117704981" lon="-1.4290209306689843"><ele>340.33333333333337</ele><time>2026-03-31T10:53:23Z</time></trkpt><trkpt lat="42.196864902975946" lon="-1.428795042057318"><ele>339.6666666666667</ele><time>2026-03-31T10:53:24Z</time></trkpt><trkpt lat="42.19683002303347" lon="-1.428585800003523"><ele>339.0</ele><time>2026-03-31T10:53:25Z</time></trkpt><trkpt lat="42.19679323136316" lon="-1.4283733556660219"><ele>339.0</ele><time>2026-03-31T10:53:26Z</time></trkpt><trkpt lat="42.196756750929374" lon="-1.4281791219904103"><ele>339.0</ele><time>2026-03-31T10:53:27Z</time></trkpt><trkpt lat="42.196729217500895" lon="-1.4279998691720754"><ele>339.0</ele><time>2026-03-31T10:53:28Z</time></trkpt><trkpt lat="42.19671430628067" lon="-1.427815242091781"><ele>339.0</ele><time>2026-03-31T10:53:29Z</time></trkpt><trkpt lat="42.19670097922748" lon="-1.4276100242154304"><ele>340.0</ele><time>2026-03-31T10:53:30Z</time></trkpt><trkpt lat="42.19667586990132" lon="-1.4273828501913004"><ele>341.0</ele><time>2026-03-31T10:53:31Z</time></trkpt><trkpt lat="42.196644200228945" lon="-1.427115931523683"><ele>342.0</ele><time>2026-03-31T10:53:32Z</time></trkpt><trkpt lat="42.19661602136232" lon="-1.4268503234806322"><ele>342.3333333333333</ele><time>2026-03-31T10:53:33Z</time></trkpt><trkpt lat="42.196592039740686" lon="-1.4265782301593453"><ele>342.66666666666663</ele><time>2026-03-31T10:53:34Z</time></trkpt><trkpt lat="42.19656815462116" lon="-1.4263117779607266"><ele>343.0</ele><time>2026-03-31T10:53:35Z</time></trkpt><trkpt lat="42.19654411303555" lon="-1.4260442650342506"><ele>343.3333333333333</ele><time>2026-03-31T10:53:36Z</time></trkpt><trkpt lat="42.19651637699543" lon="-1.4257690993107948"><ele>343.6666666666667</ele><time>2026-03-31T10:53:37Z</time></trkpt><trkpt lat="42.196492179490306" lon="-1.4254989997994172"><ele>344.0</ele><time>2026-03-31T10:53:38Z</time></trkpt><trkpt lat="42.19646757325653" lon="-1.425232165813225"><ele>343.0</ele><time>2026-03-31T10:53:39Z</time></trkpt><trkpt lat="42.19644604966404" lon="-1.424961702531147"><ele>342.0</ele><time>2026-03-31T10:53:40Z</time></trkpt><trkpt lat="42.19642205844635" lon="-1.4246936098589078"><ele>341.0</ele><time>2026-03-31T10:53:41Z</time></trkpt><trkpt lat="42.1963927594645" lon="-1.4244243142742965"><ele>341.0</ele><time>2026-03-31T10:53:42Z</time></trkpt><trkpt lat="42.19636165262645" lon="-1.4241498438372358"><ele>341.0</ele><time>2026-03-31T10:53:43Z</time></trkpt><trkpt lat="42.19633234922869" lon="-1.4238787309812357"><ele>341.0</ele><time>2026-03-31T10:53:44Z</time></trkpt><trkpt lat="42.196307469953005" lon="-1.4235983147232412"><ele>341.6666666666667</ele><time>2026-03-31T10:53:45Z</time></trkpt><trkpt lat="42.19628115383061" lon="-1.4233134939300986"><ele>342.3333333333333</ele><time>2026-03-31T10:53:46Z</time></trkpt><trkpt lat="42.19624863198975" lon="-1.4230319694873579"><ele>343.0</ele><time>2026-03-31T10:53:47Z</time></trkpt><trkpt lat="42.19621764177808" lon="-1.4227313442677796"><ele>344.0</ele><time>2026-03-31T10:53:48Z</time></trkpt><trkpt lat="42.19618534514403" lon="-1.422407609197208"><ele>345.0</ele><time>2026-03-31T10:53:49Z</time></trkpt><trkpt lat="42.19615139715931" lon="-1.4220548222308096"><ele>346.0</ele><time>2026-03-31T10:53:50Z</time></trkpt><trkpt lat="42.19612165749835" lon="-1.4217398876359233"><ele>347.0</ele><time>2026-03-31T10:53:51Z</time></trkpt><trkpt lat="42.19609229599724" lon="-1.4214515986762213"><ele>347.6666666666667</ele><time>2026-03-31T10:53:52Z</time></trkpt><trkpt lat="42.19606814810443" lon="-1.4211877907185095"><ele>348.3333333333333</ele><time>2026-03-31T10:53:53Z</time></trkpt><trkpt lat="42.19604599645004" lon="-1.4209455030350253"><ele>349.0</ele><time>2026-03-31T10:53:54Z</time></trkpt><trkpt lat="42.196025516741415" lon="-1.4207277206103317"><ele>349.0</ele><time>2026-03-31T10:53:55Z</time></trkpt><trkpt lat="42.19599878001363" lon="-1.4205505913053835"><ele>349.0</ele><time>2026-03-31T10:53:56Z</time></trkpt><trkpt lat="42.195935791661306" lon="-1.4203558380966785"><ele>349.0</ele><time>2026-03-31T10:53:57Z</time></trkpt><trkpt lat="42.19587221010383" lon="-1.4201226102419027"><ele>349.3333333333333</ele><time>2026-03-31T10:53:58Z</time></trkpt><trkpt lat="42.195818190838416" lon="-1.4198674634682944"><ele>349.6666666666667</ele><time>2026-03-31T10:53:59Z</time></trkpt><trkpt lat="42.195747026007695" lon="-1.4196210722276368"><ele>350.0</ele><time>2026-03-31T10:54:00Z</time></trkpt><trkpt lat="42.19568012282221" lon="-1.4193655007430168"><ele>350.33333333333337</ele><time>2026-03-31T10:54:01Z</time></trkpt><trkpt lat="42.19561098343756" lon="-1.4191069402528915"><ele>350.6666666666667</ele><time>2026-03-31T10:54:02Z</time></trkpt><trkpt lat="42.19553387400049" lon="-1.4188588042479369"><ele>351.0</ele><time>2026-03-31T10:54:03Z</time></trkpt><trkpt lat="42.195449714426466" lon="-1.4186012195555224"><ele>351.0</ele><time>2026-03-31T10:54:04Z</time></trkpt><trkpt lat="42.19536610147541" lon="-1.4183313960704123"><ele>351.0</ele><time>2026-03-31T10:54:05Z</time></trkpt><trkpt lat="42.1952915773815" lon="-1.4180669573659677"><ele>351.0</ele><time>2026-03-31T10:54:06Z</time></trkpt><trkpt lat="42.19521261796986" lon="-1.4177944717223634"><ele>350.3333333333333</ele><time>2026-03-31T10:54:07Z</time></trkpt><trkpt lat="42.19513168694142" lon="-1.4175272723772128"><ele>349.66666666666663</ele><time>2026-03-31T10:54:08Z</time></trkpt><trkpt lat="42.195058260076614" lon="-1.4172704920300532"><ele>349.0</ele><time>2026-03-31T10:54:09Z</time></trkpt><trkpt lat="42.19498844374579" lon="-1.4170310204254044"><ele>348.66666666666663</ele><time>2026-03-31T10:54:10Z</time></trkpt><trkpt lat="42.19491575820611" lon="-1.4168022206121502"><ele>348.3333333333333</ele><time>2026-03-31T10:54:11Z</time></trkpt><trkpt lat="42.19483941556318" lon="-1.4165634409576977"><ele>348.0</ele><time>2026-03-31T10:54:12Z</time></trkpt><trkpt lat="42.194758617079344" lon="-1.4163271322938848"><ele>347.6666666666667</ele><time>2026-03-31T10:54:13Z</time></trkpt><trkpt lat="42.19468951858802" lon="-1.4160866824149816"><ele>347.33333333333337</ele><time>2026-03-31T10:54:14Z</time></trkpt><trkpt lat="42.19463617065002" lon="-1.4158496185623997"><ele>347.0</ele><time>2026-03-31T10:54:15Z</time></trkpt><trkpt lat="42.19454608584908" lon="-1.4156023051440496"><ele>347.6666666666667</ele><time>2026-03-31T10:54:16Z</time></trkpt><trkpt lat="42.19447092759365" lon="-1.4153117163380835"><ele>348.3333333333333</ele><time>2026-03-31T10:54:17Z</time></trkpt><trkpt lat="42.19439867639296" lon="-1.415061926709955"><ele>349.0</ele><time>2026-03-31T10:54:18Z</time></trkpt><trkpt lat="42.194320334883535" lon="-1.414798547337159"><ele>349.0</ele><time>2026-03-31T10:54:19Z</time></trkpt><trkpt lat="42.194235110575185" lon="-1.4145191843838831"><ele>349.0</ele><time>2026-03-31T10:54:20Z</time></trkpt><trkpt lat="42.19415806471743" lon="-1.4142637526976392"><ele>349.0</ele><time>2026-03-31T10:54:21Z</time></trkpt><trkpt lat="42.19408593966157" lon="-1.4140325983991833"><ele>349.0</ele><time>2026-03-31T10:54:22Z</time></trkpt><trkpt lat="42.194019153272905" lon="-1.4138249980187403"><ele>349.0</ele><time>2026-03-31T10:54:23Z</time></trkpt><trkpt lat="42.19394453891252" lon="-1.413656484183732"><ele>349.0</ele><time>2026-03-31T10:54:24Z</time></trkpt><trkpt lat="42.19388084984301" lon="-1.413498130922094"><ele>349.0</ele><time>2026-03-31T10:54:25Z</time></trkpt><trkpt lat="42.1938091165877" lon="-1.4133685350853884"><ele>348.3333333333333</ele><time>2026-03-31T10:54:26Z</time></trkpt><trkpt lat="42.193710100842424" lon="-1.4132692801066067"><ele>347.6666666666667</ele><time>2026-03-31T10:54:27Z</time></trkpt><trkpt lat="42.1935726315036" lon="-1.4131859811621463"><ele>347.0</ele><time>2026-03-31T10:54:28Z</time></trkpt><trkpt lat="42.193394587427974" lon="-1.4130993869448742"><ele>347.0</ele><time>2026-03-31T10:54:29Z</time></trkpt><trkpt lat="42.19319856487488" lon="-1.4130076739502049"><ele>347.0</ele><time>2026-03-31T10:54:30Z</time></trkpt><trkpt lat="42.19297451863176" lon="-1.4129113596318992"><ele>347.0</ele><time>2026-03-31T10:54:31Z</time></trkpt><trkpt lat="42.1927347006919" lon="-1.4128106085636827"><ele>347.0</ele><time>2026-03-31T10:54:32Z</time></trkpt><trkpt lat="42.19246735322189" lon="-1.4126996538551464"><ele>347.0</ele><time>2026-03-31T10:54:33Z</time></trkpt><trkpt lat="42.192209543924264" lon="-1.4125898818057854"><ele>347.0</ele><time>2026-03-31T10:54:34Z</time></trkpt><trkpt lat="42.1919659052469" lon="-1.412484318466635"><ele>347.0</ele><time>2026-03-31T10:54:35Z</time></trkpt><trkpt lat="42.19174480530629" lon="-1.4123885207918305"><ele>347.0</ele><time>2026-03-31T10:54:36Z</time></trkpt><trkpt lat="42.191539538794714" lon="-1.4122998569215577"><ele>347.0</ele><time>2026-03-31T10:54:37Z</time></trkpt><trkpt lat="42.191343606456286" lon="-1.4122163504258844"><ele>347.0</ele><time>2026-03-31T10:54:38Z</time></trkpt><trkpt lat="42.19117409822248" lon="-1.4121208053498713"><ele>347.33333333333337</ele><time>2026-03-31T10:54:39Z</time></trkpt><trkpt lat="42.19100459024752" lon="-1.4120717179683488"><ele>347.6666666666667</ele><time>2026-03-31T10:54:40Z</time></trkpt><trkpt lat="42.19086242178303" lon="-1.4119826347798603"><ele>348.0</ele><time>2026-03-31T10:54:41Z</time></trkpt><trkpt lat="42.19072368695681" lon="-1.4119160315914223"><ele>347.25</ele><time>2026-03-31T10:54:42Z</time></trkpt><trkpt lat="42.190589793853526" lon="-1.4118569570392974"><ele>346.5</ele><time>2026-03-31T10:54:43Z</time></trkpt><trkpt lat="42.190454005495255" lon="-1.411811060042043"><ele>345.75</ele><time>2026-03-31T10:54:44Z</time></trkpt><trkpt lat="42.19029962532943" lon="-1.411803189267552"><ele>345.0</ele><time>2026-03-31T10:54:45Z</time></trkpt><trkpt lat="42.19012707921278" lon="-1.4117997953035137"><ele>345.0</ele><time>2026-03-31T10:54:46Z</time></trkpt><trkpt lat="42.18992421030452" lon="-1.4118040155614449"><ele>345.0</ele><time>2026-03-31T10:54:47Z</time></trkpt><trkpt lat="42.189694063194146" lon="-1.4117933387951176"><ele>345.0</ele><time>2026-03-31T10:54:48Z</time></trkpt><trkpt lat="42.18944625204351" lon="-1.4118221142689706"><ele>343.5</ele><time>2026-03-31T10:54:49Z</time></trkpt><trkpt lat="42.18919946711267" lon="-1.4118323604675846"><ele>342.0</ele><time>2026-03-31T10:54:50Z</time></trkpt><trkpt lat="42.1889535566149" lon="-1.4118386493424357"><ele>341.0</ele><time>2026-03-31T10:54:51Z</time></trkpt><trkpt lat="42.188718629934904" lon="-1.411854900415661"><ele>340.0</ele><time>2026-03-31T10:54:52Z</time></trkpt><trkpt lat="42.18850797633439" lon="-1.4118671823026614"><ele>339.0</ele><time>2026-03-31T10:54:53Z</time></trkpt><trkpt lat="42.188312583128074" lon="-1.4118782855637075"><ele>338.0</ele><time>2026-03-31T10:54:54Z</time></trkpt><trkpt lat="42.188117383433486" lon="-1.4118856764324874"><ele>337.0</ele><time>2026-03-31T10:54:55Z</time></trkpt><trkpt lat="42.18793354269992" lon="-1.4118950109158233"><ele>336.0</ele><time>2026-03-31T10:54:56Z</time></trkpt><trkpt lat="42.187755220067075" lon="-1.411890778130155"><ele>336.0</ele><time>2026-03-31T10:54:57Z</time></trkpt><trkpt lat="42.18757512283374" lon="-1.4118742535287372"><ele>336.0</ele><time>2026-03-31T10:54:58Z</time></trkpt><trkpt lat="42.1873991497565" lon="-1.4118461489115177"><ele>336.0</ele><time>2026-03-31T10:54:59Z</time></trkpt><trkpt lat="42.18722915336159" lon="-1.4117882458372906"><ele>334.6666666666667</ele><time>2026-03-31T10:55:00Z</time></trkpt><trkpt lat="42.18704393569924" lon="-1.4116940774072"><ele>333.33333333333337</ele><time>2026-03-31T10:55:01Z</time></trkpt><trkpt lat="42.18684267014304" lon="-1.4115724539688317"><ele>332.0</ele><time>2026-03-31T10:55:02Z</time></trkpt><trkpt lat="42.186626675203364" lon="-1.4114336957894333"><ele>332.0</ele><time>2026-03-31T10:55:03Z</time></trkpt><trkpt lat="42.186398880632204" lon="-1.411290626183738"><ele>332.0</ele><time>2026-03-31T10:55:04Z</time></trkpt><trkpt lat="42.18617423147704" lon="-1.411153241009714"><ele>332.0</ele><time>2026-03-31T10:55:05Z</time></trkpt><trkpt lat="42.18595192203281" lon="-1.4110219935807935"><ele>332.0</ele><time>2026-03-31T10:55:06Z</time></trkpt><trkpt lat="42.18573370372198" lon="-1.4108944726575114"><ele>332.0</ele><time>2026-03-31T10:55:07Z</time></trkpt><trkpt lat="42.185513736679866" lon="-1.410765591099015"><ele>332.0</ele><time>2026-03-31T10:55:08Z</time></trkpt><trkpt lat="42.18529935284789" lon="-1.4106387862301755"><ele>332.0</ele><time>2026-03-31T10:55:09Z</time></trkpt><trkpt lat="42.18507996797788" lon="-1.4105128211619102"><ele>332.0</ele><time>2026-03-31T10:55:10Z</time></trkpt><trkpt lat="42.18486131406175" lon="-1.4104147662423212"><ele>331.33333333333337</ele><time>2026-03-31T10:55:11Z</time></trkpt><trkpt lat="42.18466318704059" lon="-1.4102847194837054"><ele>330.6666666666667</ele><time>2026-03-31T10:55:12Z</time></trkpt><trkpt lat="42.184465351665764" lon="-1.4101830838156453"><ele>330.0</ele><time>2026-03-31T10:55:13Z</time></trkpt><trkpt lat="42.1842774503961" lon="-1.4100919845999402"><ele>330.0</ele><time>2026-03-31T10:55:14Z</time></trkpt><trkpt lat="42.18409040959656" lon="-1.4100042282008414"><ele>330.0</ele><time>2026-03-31T10:55:15Z</time></trkpt><trkpt lat="42.183911553383254" lon="-1.4099222525731498"><ele>330.0</ele><time>2026-03-31T10:55:16Z</time></trkpt><trkpt lat="42.18373898688755" lon="-1.409853328187254"><ele>329.75</ele><time>2026-03-31T10:55:17Z</time></trkpt><trkpt lat="42.1835844690688" lon="-1.4097950768542888"><ele>329.5</ele><time>2026-03-31T10:55:18Z</time></trkpt><trkpt lat="42.18347619177413" lon="-1.409744293883669"><ele>329.25</ele><time>2026-03-31T10:55:19Z</time></trkpt><trkpt lat="42.18335808020838" lon="-1.4096694077112528"><ele>329.0</ele><time>2026-03-31T10:55:20Z</time></trkpt><trkpt lat="42.18324315536588" lon="-1.409550099999267"><ele>329.6666666666667</ele><time>2026-03-31T10:55:21Z</time></trkpt><trkpt lat="42.183118620366706" lon="-1.4093824161630442"><ele>330.3333333333333</ele><time>2026-03-31T10:55:22Z</time></trkpt><trkpt lat="42.182991150089116" lon="-1.4091892261603516"><ele>331.0</ele><time>2026-03-31T10:55:23Z</time></trkpt><trkpt lat="42.182878497400644" lon="-1.4089931344668052"><ele>331.66666666666663</ele><time>2026-03-31T10:55:24Z</time></trkpt><trkpt lat="42.18275493254505" lon="-1.408824669795988"><ele>332.3333333333333</ele><time>2026-03-31T10:55:25Z</time></trkpt><trkpt lat="42.18264173522049" lon="-1.4086495661995677"><ele>333.0</ele><time>2026-03-31T10:55:26Z</time></trkpt><trkpt lat="42.18251699947917" lon="-1.4084921660975986"><ele>333.0</ele><time>2026-03-31T10:55:27Z</time></trkpt><trkpt lat="42.1823706653211" lon="-1.4083485238932363"><ele>333.0</ele><time>2026-03-31T10:55:28Z</time></trkpt><trkpt lat="42.182196795530366" lon="-1.4081987227478252"><ele>333.0</ele><time>2026-03-31T10:55:29Z</time></trkpt><trkpt lat="42.182010798087305" lon="-1.4080303655937758"><ele>334.0</ele><time>2026-03-31T10:55:30Z</time></trkpt><trkpt lat="42.181834112029456" lon="-1.4078501058619792"><ele>335.0</ele><time>2026-03-31T10:55:31Z</time></trkpt><trkpt lat="42.18165389900461" lon="-1.4077027606351848"><ele>336.0</ele><time>2026-03-31T10:55:32Z</time></trkpt><trkpt lat="42.18148928065633" lon="-1.4075739132062142"><ele>336.6666666666667</ele><time>2026-03-31T10:55:33Z</time></trkpt><trkpt lat="42.181312296381094" lon="-1.4074726601969836"><ele>337.33333333333337</ele><time>2026-03-31T10:55:34Z</time></trkpt><trkpt lat="42.18116399913864" lon="-1.4073720584598786"><ele>338.0</ele><time>2026-03-31T10:55:35Z</time></trkpt><trkpt lat="42.181048779835244" lon="-1.4072842169512128"><ele>338.0</ele><time>2026-03-31T10:55:36Z</time></trkpt><trkpt lat="42.18092664274001" lon="-1.4072504154851784"><ele>338.0</ele><time>2026-03-31T10:55:37Z</time></trkpt><trkpt lat="42.18079373084064" lon="-1.4072760570121077"><ele>338.0</ele><time>2026-03-31T10:55:38Z</time></trkpt><trkpt lat="42.18063921710805" lon="-1.4072857272899704"><ele>338.0</ele><time>2026-03-31T10:55:39Z</time></trkpt><trkpt lat="42.180461925202344" lon="-1.4072976866152742"><ele>338.0</ele><time>2026-03-31T10:55:40Z</time></trkpt><trkpt lat="42.18029223910022" lon="-1.407295560576862"><ele>338.0</ele><time>2026-03-31T10:55:41Z</time></trkpt><trkpt lat="42.1801337519629" lon="-1.4073149939346663"><ele>338.0</ele><time>2026-03-31T10:55:42Z</time></trkpt><trkpt lat="42.17999320052127" lon="-1.4073331142443413"><ele>338.0</ele><time>2026-03-31T10:55:43Z</time></trkpt><trkpt lat="42.17986526606749" lon="-1.407374495675714"><ele>338.0</ele><time>2026-03-31T10:55:44Z</time></trkpt><trkpt lat="42.17973724397958" lon="-1.407481437945877"><ele>338.0</ele><time>2026-03-31T10:55:45Z</time></trkpt><trkpt lat="42.179598693681186" lon="-1.4076217758866203"><ele>337.0</ele><time>2026-03-31T10:55:46Z</time></trkpt><trkpt lat="42.179454994572936" lon="-1.4077695137311939"><ele>336.0</ele><time>2026-03-31T10:55:47Z</time></trkpt><trkpt lat="42.179314403091794" lon="-1.407917109798446"><ele>335.0</ele><time>2026-03-31T10:55:48Z</time></trkpt><trkpt lat="42.179167566171216" lon="-1.408054568018116"><ele>335.0</ele><time>2026-03-31T10:55:49Z</time></trkpt><trkpt lat="42.17903125648903" lon="-1.4082080810544535"><ele>335.0</ele><time>2026-03-31T10:55:50Z</time></trkpt><trkpt lat="42.17890678878729" lon="-1.4083824679803127"><ele>335.0</ele><time>2026-03-31T10:55:51Z</time></trkpt><trkpt lat="42.17876752578437" lon="-1.4085337346941458"><ele>334.6666666666667</ele><time>2026-03-31T10:55:52Z</time></trkpt><trkpt lat="42.1786573925779" lon="-1.408729999991638"><ele>334.3333333333333</ele><time>2026-03-31T10:55:53Z</time></trkpt><trkpt lat="42.17854325081511" lon="-1.40891784811977"><ele>334.0</ele><time>2026-03-31T10:55:54Z</time></trkpt><trkpt lat="42.1784316257815" lon="-1.4091076587661824"><ele>333.66666666666663</ele><time>2026-03-31T10:55:55Z</time></trkpt><trkpt lat="42.178303804462345" lon="-1.4092903874141092"><ele>333.3333333333333</ele><time>2026-03-31T10:55:56Z</time></trkpt><trkpt lat="42.17820409570218" lon="-1.4094967621293777"><ele>333.0</ele><time>2026-03-31T10:55:57Z</time></trkpt><trkpt lat="42.17809381230297" lon="-1.4096887093045898"><ele>331.6666666666667</ele><time>2026-03-31T10:55:58Z</time></trkpt><trkpt lat="42.17798771926927" lon="-1.4098845923479426"><ele>330.33333333333337</ele><time>2026-03-31T10:55:59Z</time></trkpt><trkpt lat="42.1778950643664" lon="-1.410076724596146"><ele>329.0</ele><time>2026-03-31T10:56:00Z</time></trkpt><trkpt lat="42.17781718231639" lon="-1.41026748265402"><ele>329.0</ele><time>2026-03-31T10:56:01Z</time></trkpt><trkpt lat="42.177750986538555" lon="-1.410457649803919"><ele>329.0</ele><time>2026-03-31T10:56:02Z</time></trkpt><trkpt lat="42.17768630187197" lon="-1.4106501735265462"><ele>329.0</ele><time>2026-03-31T10:56:03Z</time></trkpt><trkpt lat="42.177619270899946" lon="-1.4108555763111028"><ele>329.6666666666667</ele><time>2026-03-31T10:56:04Z</time></trkpt><trkpt lat="42.17755506485561" lon="-1.4110533382731927"><ele>330.3333333333333</ele><time>2026-03-31T10:56:05Z</time></trkpt><trkpt lat="42.17749302598134" lon="-1.4112494887993774"><ele>331.0</ele><time>2026-03-31T10:56:06Z</time></trkpt><trkpt lat="42.17741628418594" lon="-1.4114412315451976"><ele>331.0</ele><time>2026-03-31T10:56:07Z</time></trkpt><trkpt lat="42.17735601677965" lon="-1.4116572085089747"><ele>331.0</ele><time>2026-03-31T10:56:08Z</time></trkpt><trkpt lat="42.17731734953616" lon="-1.4118761402264504"><ele>331.0</ele><time>2026-03-31T10:56:09Z</time></trkpt><trkpt lat="42.17727629460096" lon="-1.4120819657606731"><ele>330.25</ele><time>2026-03-31T10:56:10Z</time></trkpt><trkpt lat="42.17723700195558" lon="-1.4122864576387089"><ele>329.5</ele><time>2026-03-31T10:56:11Z</time></trkpt><trkpt lat="42.17718596804196" lon="-1.4124705016921584"><ele>328.75</ele><time>2026-03-31T10:56:12Z</time></trkpt><trkpt lat="42.17714434769049" lon="-1.4126371174117363"><ele>328.0</ele><time>2026-03-31T10:56:13Z</time></trkpt><trkpt lat="42.17709119746532" lon="-1.4127799172311828"><ele>328.0</ele><time>2026-03-31T10:56:14Z</time></trkpt><trkpt lat="42.177024497012816" lon="-1.4129017040125844"><ele>328.0</ele><time>2026-03-31T10:56:15Z</time></trkpt><trkpt lat="42.17694479770336" lon="-1.4130068107177007"><ele>328.0</ele><time>2026-03-31T10:56:16Z</time></trkpt><trkpt lat="42.176849091978305" lon="-1.4131105984644297"><ele>328.0</ele><time>2026-03-31T10:56:17Z</time></trkpt><trkpt lat="42.17676036453357" lon="-1.413235277879224"><ele>328.0</ele><time>2026-03-31T10:56:18Z</time></trkpt><trkpt lat="42.17665664095356" lon="-1.4133413414885116"><ele>328.0</ele><time>2026-03-31T10:56:19Z</time></trkpt><trkpt lat="42.1765559778016" lon="-1.4134614504835135"><ele>328.0</ele><time>2026-03-31T10:56:20Z</time></trkpt><trkpt lat="42.176470674476015" lon="-1.413568604869511"><ele>328.0</ele><time>2026-03-31T10:56:21Z</time></trkpt><trkpt lat="42.17639015045902" lon="-1.41366485032359"><ele>328.0</ele><time>2026-03-31T10:56:22Z</time></trkpt><trkpt lat="42.17629611438206" lon="-1.4137822465547993"><ele>328.0</ele><time>2026-03-31T10:56:23Z</time></trkpt><trkpt lat="42.176198553888334" lon="-1.4139084200941292"><ele>328.0</ele><time>2026-03-31T10:56:24Z</time></trkpt><trkpt lat="42.17609649486288" lon="-1.41403579902871"><ele>328.0</ele><time>2026-03-31T10:56:25Z</time></trkpt><trkpt lat="42.175984027214184" lon="-1.4141659576908765"><ele>328.0</ele><time>2026-03-31T10:56:26Z</time></trkpt><trkpt lat="42.17586909327102" lon="-1.4143074199302132"><ele>328.0</ele><time>2026-03-31T10:56:27Z</time></trkpt><trkpt lat="42.175763334672375" lon="-1.414471444529063"><ele>328.0</ele><time>2026-03-31T10:56:28Z</time></trkpt><trkpt lat="42.17564445722682" lon="-1.4146235778117502"><ele>327.0</ele><time>2026-03-31T10:56:29Z</time></trkpt><trkpt lat="42.17551901528672" lon="-1.414784111892629"><ele>326.0</ele><time>2026-03-31T10:56:30Z</time></trkpt><trkpt lat="42.175380739633745" lon="-1.4149607424241784"><ele>325.0</ele><time>2026-03-31T10:56:31Z</time></trkpt><trkpt lat="42.175231343266034" lon="-1.4151179012291841"><ele>325.0</ele><time>2026-03-31T10:56:32Z</time></trkpt><trkpt lat="42.175090773847046" lon="-1.4152930584947356"><ele>325.0</ele><time>2026-03-31T10:56:33Z</time></trkpt><trkpt lat="42.174956108547406" lon="-1.415476620992474"><ele>325.0</ele><time>2026-03-31T10:56:34Z</time></trkpt><trkpt lat="42.174814903586885" lon="-1.415642918971966"><ele>325.0</ele><time>2026-03-31T10:56:35Z</time></trkpt><trkpt lat="42.17469189922991" lon="-1.4158263662621893"><ele>325.0</ele><time>2026-03-31T10:56:36Z</time></trkpt><trkpt lat="42.174544248624066" lon="-1.4159818520232716"><ele>325.0</ele><time>2026-03-31T10:56:37Z</time></trkpt><trkpt lat="42.17440565367922" lon="-1.4161554530863034"><ele>324.66666666666663</ele><time>2026-03-31T10:56:38Z</time></trkpt><trkpt lat="42.17427257272609" lon="-1.4163506905102488"><ele>324.3333333333333</ele><time>2026-03-31T10:56:39Z</time></trkpt><trkpt lat="42.174133336274" lon="-1.4165244514083455"><ele>324.0</ele><time>2026-03-31T10:56:40Z</time></trkpt><trkpt lat="42.17399584525387" lon="-1.4166934525028845"><ele>325.0</ele><time>2026-03-31T10:56:41Z</time></trkpt><trkpt lat="42.17385892710067" lon="-1.4168559111779557"><ele>326.0</ele><time>2026-03-31T10:56:42Z</time></trkpt><trkpt lat="42.17372220573003" lon="-1.4170223957095411"><ele>327.0</ele><time>2026-03-31T10:56:43Z</time></trkpt><trkpt lat="42.173587176881306" lon="-1.4172022155333892"><ele>327.0</ele><time>2026-03-31T10:56:44Z</time></trkpt><trkpt lat="42.173443079269525" lon="-1.4173924132079008"><ele>327.0</ele><time>2026-03-31T10:56:45Z</time></trkpt><trkpt lat="42.17330321194817" lon="-1.417571831562144"><ele>327.0</ele><time>2026-03-31T10:56:46Z</time></trkpt><trkpt lat="42.173166132119604" lon="-1.4177442034942769"><ele>327.0</ele><time>2026-03-31T10:56:47Z</time></trkpt><trkpt lat="42.173023352357426" lon="-1.4179146153171756"><ele>327.0</ele><time>2026-03-31T10:56:48Z</time></trkpt><trkpt lat="42.172874559194504" lon="-1.4180890319508557"><ele>327.0</ele><time>2026-03-31T10:56:49Z</time></trkpt><trkpt lat="42.172711155085075" lon="-1.4182849668841204"><ele>327.0</ele><time>2026-03-31T10:56:50Z</time></trkpt><trkpt lat="42.172580234311496" lon="-1.4184423584208001"><ele>327.0</ele><time>2026-03-31T10:56:51Z</time></trkpt><trkpt lat="42.17245920055784" lon="-1.4185854495328079"><ele>327.0</ele><time>2026-03-31T10:56:52Z</time></trkpt><trkpt lat="42.172346429963916" lon="-1.418716573539003"><ele>327.25</ele><time>2026-03-31T10:56:53Z</time></trkpt><trkpt lat="42.17224100384284" lon="-1.4188383302122454"><ele>327.5</ele><time>2026-03-31T10:56:54Z</time></trkpt><trkpt lat="42.17214124054031" lon="-1.4189535467680863"><ele>327.75</ele><time>2026-03-31T10:56:55Z</time></trkpt><trkpt lat="42.17203857031987" lon="-1.419072120345676"><ele>328.0</ele><time>2026-03-31T10:56:56Z</time></trkpt><trkpt lat="42.17191974338352" lon="-1.4192094429486577"><ele>328.0</ele><time>2026-03-31T10:56:57Z</time></trkpt><trkpt lat="42.17178603377057" lon="-1.4193657803112405"><ele>328.0</ele><time>2026-03-31T10:56:58Z</time></trkpt><trkpt lat="42.171645449695" lon="-1.419509690173411"><ele>328.0</ele><time>2026-03-31T10:56:59Z</time></trkpt><trkpt lat="42.17152948622573" lon="-1.4196682677372627"><ele>327.0</ele><time>2026-03-31T10:57:00Z</time></trkpt><trkpt lat="42.17142910404026" lon="-1.4198264325738519"><ele>326.0</ele><time>2026-03-31T10:57:01Z</time></trkpt><trkpt lat="42.17133955957926" lon="-1.4199839452020526"><ele>325.0</ele><time>2026-03-31T10:57:02Z</time></trkpt><trkpt lat="42.17127348227295" lon="-1.4201710268767818"><ele>325.0</ele><time>2026-03-31T10:57:03Z</time></trkpt><trkpt lat="42.17119393039454" lon="-1.4203625095290906"><ele>325.0</ele><time>2026-03-31T10:57:04Z</time></trkpt><trkpt lat="42.171097627310616" lon="-1.420559029406754"><ele>325.0</ele><time>2026-03-31T10:57:05Z</time></trkpt><trkpt lat="42.17101836433226" lon="-1.4207760998354773"><ele>325.0</ele><time>2026-03-31T10:57:06Z</time></trkpt><trkpt lat="42.170936358663184" lon="-1.4209952885741868"><ele>325.0</ele><time>2026-03-31T10:57:07Z</time></trkpt><trkpt lat="42.17084276218714" lon="-1.4212027860208922"><ele>325.0</ele><time>2026-03-31T10:57:08Z</time></trkpt><trkpt lat="42.170745576208624" lon="-1.4213932729948349"><ele>324.0</ele><time>2026-03-31T10:57:09Z</time></trkpt><trkpt lat="42.17065325548797" lon="-1.4215819104117147"><ele>323.0</ele><time>2026-03-31T10:57:10Z</time></trkpt><trkpt lat="42.170555117535905" lon="-1.4217668165564972"><ele>322.0</ele><time>2026-03-31T10:57:11Z</time></trkpt><trkpt lat="42.17044827782355" lon="-1.4219642731488558"><ele>322.0</ele><time>2026-03-31T10:57:12Z</time></trkpt><trkpt lat="42.170333082317775" lon="-1.4221689634290096"><ele>322.0</ele><time>2026-03-31T10:57:13Z</time></trkpt><trkpt lat="42.170204717335885" lon="-1.4223732402562816"><ele>322.0</ele><time>2026-03-31T10:57:14Z</time></trkpt><trkpt lat="42.17006846461385" lon="-1.4225751695653401"><ele>322.0</ele><time>2026-03-31T10:57:15Z</time></trkpt><trkpt lat="42.169928760652105" lon="-1.4227553834676898"><ele>322.0</ele><time>2026-03-31T10:57:16Z</time></trkpt><trkpt lat="42.169796964416356" lon="-1.422940144595839"><ele>322.0</ele><time>2026-03-31T10:57:17Z</time></trkpt><trkpt lat="42.169654702138615" lon="-1.423100844095792"><ele>320.3333333333333</ele><time>2026-03-31T10:57:18Z</time></trkpt><trkpt lat="42.16952213525673" lon="-1.4232481761447346"><ele>318.6666666666667</ele><time>2026-03-31T10:57:19Z</time></trkpt><trkpt lat="42.169400475931575" lon="-1.4233835360635159"><ele>317.0</ele><time>2026-03-31T10:57:20Z</time></trkpt><trkpt lat="42.169290088375575" lon="-1.4235088527084376"><ele>317.0</ele><time>2026-03-31T10:57:21Z</time></trkpt><trkpt lat="42.169191051480475" lon="-1.4236281471434724"><ele>317.0</ele><time>2026-03-31T10:57:22Z</time></trkpt><trkpt lat="42.16910037089387" lon="-1.4237478611667154"><ele>317.0</ele><time>2026-03-31T10:57:23Z</time></trkpt><trkpt lat="42.16900908234615" lon="-1.423863869707716"><ele>317.0</ele><time>2026-03-31T10:57:24Z</time></trkpt><trkpt lat="42.1689144295579" lon="-1.4239813805054986"><ele>316.25</ele><time>2026-03-31T10:57:25Z</time></trkpt><trkpt lat="42.16881389024002" lon="-1.4241005943955745"><ele>315.5</ele><time>2026-03-31T10:57:26Z</time></trkpt><trkpt lat="42.16868066358996" lon="-1.424217413161761"><ele>314.75</ele><time>2026-03-31T10:57:27Z</time></trkpt><trkpt lat="42.1685521557741" lon="-1.424334102513559"><ele>314.0</ele><time>2026-03-31T10:57:28Z</time></trkpt><trkpt lat="42.168422330838496" lon="-1.4244399570403825"><ele>314.0</ele><time>2026-03-31T10:57:29Z</time></trkpt><trkpt lat="42.168288690509655" lon="-1.4245427548023337"><ele>314.0</ele><time>2026-03-31T10:57:30Z</time></trkpt><trkpt lat="42.168175810354256" lon="-1.424678177821693"><ele>314.0</ele><time>2026-03-31T10:57:31Z</time></trkpt><trkpt lat="42.168085455068834" lon="-1.424807388515211"><ele>314.0</ele><time>2026-03-31T10:57:32Z</time></trkpt><trkpt lat="42.1679916131677" lon="-1.4249532944736565"><ele>315.0</ele><time>2026-03-31T10:57:33Z</time></trkpt><trkpt lat="42.167889456842694" lon="-1.4251231280938081"><ele>316.0</ele><time>2026-03-31T10:57:34Z</time></trkpt><trkpt lat="42.1677653467457" lon="-1.425302285633932"><ele>317.0</ele><time>2026-03-31T10:57:35Z</time></trkpt><trkpt lat="42.16764683671298" lon="-1.4255195850006421"><ele>316.6666666666667</ele><time>2026-03-31T10:57:36Z</time></trkpt><trkpt lat="42.16753159455726" lon="-1.4257196013196423"><ele>316.3333333333333</ele><time>2026-03-31T10:57:37Z</time></trkpt><trkpt lat="42.167433003861696" lon="-1.4258840080294835"><ele>316.0</ele><time>2026-03-31T10:57:38Z</time></trkpt><trkpt lat="42.16734459309571" lon="-1.4260148127699739"><ele>316.0</ele><time>2026-03-31T10:57:39Z</time></trkpt><trkpt lat="42.16725759384259" lon="-1.426145920929569"><ele>316.0</ele><time>2026-03-31T10:57:40Z</time></trkpt><trkpt lat="42.16714857411091" lon="-1.426309688949335"><ele>316.0</ele><time>2026-03-31T10:57:41Z</time></trkpt><trkpt lat="42.16702722458013" lon="-1.4264831777849194"><ele>315.3333333333333</ele><time>2026-03-31T10:57:42Z</time></trkpt><trkpt lat="42.16684891911066" lon="-1.4266537161416017"><ele>314.6666666666667</ele><time>2026-03-31T10:57:43Z</time></trkpt><trkpt lat="42.16669012323057" lon="-1.4268079333509667"><ele>314.0</ele><time>2026-03-31T10:57:44Z</time></trkpt><trkpt lat="42.16653735292796" lon="-1.4269639859370924"><ele>314.0</ele><time>2026-03-31T10:57:45Z</time></trkpt><trkpt lat="42.16638416835295" lon="-1.4271129689201503"><ele>314.0</ele><time>2026-03-31T10:57:46Z</time></trkpt><trkpt lat="42.166242312860895" lon="-1.4272916614683686"><ele>314.0</ele><time>2026-03-31T10:57:47Z</time></trkpt><trkpt lat="42.16609715636645" lon="-1.427475183820462"><ele>314.0</ele><time>2026-03-31T10:57:48Z</time></trkpt><trkpt lat="42.16594703596377" lon="-1.4276451881394592"><ele>314.0</ele><time>2026-03-31T10:57:49Z</time></trkpt><trkpt lat="42.16580052516508" lon="-1.4278142516514694"><ele>314.0</ele><time>2026-03-31T10:57:50Z</time></trkpt><trkpt lat="42.165660681485996" lon="-1.4279807359769563"><ele>315.6666666666667</ele><time>2026-03-31T10:57:51Z</time></trkpt><trkpt lat="42.165524723277656" lon="-1.428138932477235"><ele>317.3333333333333</ele><time>2026-03-31T10:57:52Z</time></trkpt><trkpt lat="42.16538771971912" lon="-1.4282882368065917"><ele>319.0</ele><time>2026-03-31T10:57:53Z</time></trkpt><trkpt lat="42.16525711218541" lon="-1.4284248870072074"><ele>319.0</ele><time>2026-03-31T10:57:54Z</time></trkpt><trkpt lat="42.165128623652784" lon="-1.4285509657784323"><ele>319.0</ele><time>2026-03-31T10:57:55Z</time></trkpt><trkpt lat="42.165007549303546" lon="-1.4286671280003247"><ele>319.0</ele><time>2026-03-31T10:57:56Z</time></trkpt><trkpt lat="42.16490595798826" lon="-1.4287706126644568"><ele>319.0</ele><time>2026-03-31T10:57:57Z</time></trkpt><trkpt lat="42.1648095087419" lon="-1.428874723011832"><ele>319.0</ele><time>2026-03-31T10:57:58Z</time></trkpt><trkpt lat="42.164710025375925" lon="-1.428988284319872"><ele>319.0</ele><time>2026-03-31T10:57:59Z</time></trkpt><trkpt lat="42.16461120257061" lon="-1.4291140651401524"><ele>319.0</ele><time>2026-03-31T10:58:00Z</time></trkpt><trkpt lat="42.16451731629456" lon="-1.4292406846202055"><ele>319.0</ele><time>2026-03-31T10:58:01Z</time></trkpt><trkpt lat="42.16442809057046" lon="-1.4293536320784457"><ele>319.0</ele><time>2026-03-31T10:58:02Z</time></trkpt><trkpt lat="42.16434633861996" lon="-1.4294588914356632"><ele>319.0</ele><time>2026-03-31T10:58:03Z</time></trkpt><trkpt lat="42.164280237929745" lon="-1.4295557391898162"><ele>319.0</ele><time>2026-03-31T10:58:04Z</time></trkpt><trkpt lat="42.16422850471741" lon="-1.4296170501481371"><ele>319.0</ele><time>2026-03-31T10:58:05Z</time></trkpt><trkpt lat="42.16418068773604" lon="-1.429678501594459"><ele>319.0</ele><time>2026-03-31T10:58:07Z</time></trkpt><trkpt lat="42.16407819532752" lon="-1.4294356965958361"><ele>319.0</ele><time>2026-03-31T10:58:45Z</time></trkpt><trkpt lat="42.164093223054834" lon="-1.4293279971547967"><ele>319.0</ele><time>2026-03-31T10:58:46Z</time></trkpt><trkpt lat="42.16412002002756" lon="-1.429174868696"><ele>319.0</ele><time>2026-03-31T10:58:47Z</time></trkpt><trkpt lat="42.16414757809749" lon="-1.429018789381421"><ele>319.0</ele><time>2026-03-31T10:58:48Z</time></trkpt><trkpt lat="42.16418193570776" lon="-1.428876968843921"><ele>319.0</ele><time>2026-03-31T10:58:49Z</time></trkpt><trkpt lat="42.16421026815811" lon="-1.4287550021085544"><ele>319.25</ele><time>2026-03-31T10:58:50Z</time></trkpt><trkpt lat="42.164222084778444" lon="-1.4286005803884005"><ele>319.5</ele><time>2026-03-31T10:58:51Z</time></trkpt><trkpt lat="42.16422470316061" lon="-1.4284497583929192"><ele>319.75</ele><time>2026-03-31T10:58:52Z</time></trkpt><trkpt lat="42.16420652395044" lon="-1.4282780128889483"><ele>320.0</ele><time>2026-03-31T10:58:53Z</time></trkpt><trkpt lat="42.16417451171555" lon="-1.4280780697709854"><ele>320.0</ele><time>2026-03-31T10:58:54Z</time></trkpt><trkpt lat="42.16413248561859" lon="-1.4278902915256375"><ele>320.0</ele><time>2026-03-31T10:58:55Z</time></trkpt><trkpt lat="42.16410440672881" lon="-1.4277331876015023"><ele>320.0</ele><time>2026-03-31T10:58:56Z</time></trkpt><trkpt lat="42.16409363186293" lon="-1.427572870214287"><ele>320.0</ele><time>2026-03-31T10:58:57Z</time></trkpt><trkpt lat="42.16407045063131" lon="-1.4273879808926193"><ele>320.0</ele><time>2026-03-31T10:58:58Z</time></trkpt><trkpt lat="42.16403969535904" lon="-1.4272022461740699"><ele>320.0</ele><time>2026-03-31T10:58:59Z</time></trkpt><trkpt lat="42.1640027375273" lon="-1.427034163275332"><ele>320.0</ele><time>2026-03-31T10:59:00Z</time></trkpt><trkpt lat="42.163959813081384" lon="-1.4269047070227694"><ele>320.0</ele><time>2026-03-31T10:59:01Z</time></trkpt><trkpt lat="42.163922102069755" lon="-1.4267779603894815"><ele>322.2</ele><time>2026-03-31T10:59:02Z</time></trkpt><trkpt lat="42.16390462296682" lon="-1.426632912180651"><ele>324.4</ele><time>2026-03-31T10:59:03Z</time></trkpt><trkpt lat="42.163902895946606" lon="-1.4264819051218212"><ele>326.6</ele><time>2026-03-31T10:59:04Z</time></trkpt><trkpt lat="42.1639197489142" lon="-1.4263584113548935"><ele>328.8</ele><time>2026-03-31T10:59:05Z</time></trkpt><trkpt lat="42.16395679609941" lon="-1.4262416809075529"><ele>331.0</ele><time>2026-03-31T10:59:06Z</time></trkpt><trkpt lat="42.16397305825703" lon="-1.4260921833485711"><ele>331.25</ele><time>2026-03-31T10:59:07Z</time></trkpt><trkpt lat="42.1639740783534" lon="-1.4259431882467928"><ele>331.5</ele><time>2026-03-31T10:59:08Z</time></trkpt><trkpt lat="42.16396356236051" lon="-1.4257839258805696"><ele>331.75</ele><time>2026-03-31T10:59:09Z</time></trkpt><trkpt lat="42.163929850374466" lon="-1.4256348375722916"><ele>332.0</ele><time>2026-03-31T10:59:10Z</time></trkpt><trkpt lat="42.163876255819076" lon="-1.4255071613831463"><ele>330.5</ele><time>2026-03-31T10:59:11Z</time></trkpt><trkpt lat="42.16380767125049" lon="-1.4253996228166195"><ele>329.0</ele><time>2026-03-31T10:59:12Z</time></trkpt><trkpt lat="42.16372038680153" lon="-1.4252710768147332"><ele>327.5</ele><time>2026-03-31T10:59:13Z</time></trkpt><trkpt lat="42.16364224603334" lon="-1.425116417781686"><ele>326.0</ele><time>2026-03-31T10:59:14Z</time></trkpt><trkpt lat="42.16356809355198" lon="-1.4249710704370462"><ele>326.0</ele><time>2026-03-31T10:59:15Z</time></trkpt><trkpt lat="42.16347688400589" lon="-1.4248434262769507"><ele>326.0</ele><time>2026-03-31T10:59:16Z</time></trkpt><trkpt lat="42.16337368668461" lon="-1.4247466620984393"><ele>326.0</ele><time>2026-03-31T10:59:17Z</time></trkpt><trkpt lat="42.16326523173116" lon="-1.4246609033913429"><ele>326.0</ele><time>2026-03-31T10:59:18Z</time></trkpt><trkpt lat="42.163155965223794" lon="-1.4245742274512494"><ele>326.75</ele><time>2026-03-31T10:59:19Z</time></trkpt><trkpt lat="42.16305502430696" lon="-1.4244601136497195"><ele>327.5</ele><time>2026-03-31T10:59:20Z</time></trkpt><trkpt lat="42.16296607231459" lon="-1.4243313435420877"><ele>328.25</ele><time>2026-03-31T10:59:21Z</time></trkpt><trkpt lat="42.16288562499515" lon="-1.4242275970812985"><ele>329.0</ele><time>2026-03-31T10:59:22Z</time></trkpt><trkpt lat="42.16281760501231" lon="-1.4241334248610622"><ele>329.0</ele><time>2026-03-31T10:59:23Z</time></trkpt><trkpt lat="42.16275670873938" lon="-1.4240128092887627"><ele>329.0</ele><time>2026-03-31T10:59:24Z</time></trkpt><trkpt lat="42.162709573320775" lon="-1.4238710697118997"><ele>329.0</ele><time>2026-03-31T10:59:25Z</time></trkpt><trkpt lat="42.16266016689638" lon="-1.4236857882289844"><ele>329.0</ele><time>2026-03-31T10:59:26Z</time></trkpt><trkpt lat="42.162627081118835" lon="-1.423500593959226"><ele>328.4</ele><time>2026-03-31T10:59:27Z</time></trkpt><trkpt lat="42.16258888376697" lon="-1.4233427182290912"><ele>327.79999999999995</ele><time>2026-03-31T10:59:28Z</time></trkpt><trkpt lat="42.16255751013897" lon="-1.4232100550962552"><ele>327.20000000000005</ele><time>2026-03-31T10:59:29Z</time></trkpt><trkpt lat="42.16255498072588" lon="-1.4230811007472681"><ele>326.6</ele><time>2026-03-31T10:59:30Z</time></trkpt><trkpt lat="42.16258376247216" lon="-1.422934917511953"><ele>326.0</ele><time>2026-03-31T10:59:31Z</time></trkpt><trkpt lat="42.162618337260724" lon="-1.4227831510898763"><ele>325.5</ele><time>2026-03-31T10:59:32Z</time></trkpt><trkpt lat="42.16265738940182" lon="-1.4226146139514428"><ele>325.0</ele><time>2026-03-31T10:59:33Z</time></trkpt><trkpt lat="42.16270550091954" lon="-1.4224310766952268"><ele>324.5</ele><time>2026-03-31T10:59:34Z</time></trkpt><trkpt lat="42.162767371051906" lon="-1.4222404911044857"><ele>324.0</ele><time>2026-03-31T10:59:35Z</time></trkpt><trkpt lat="42.162817348469346" lon="-1.4220393854529827"><ele>323.6666666666667</ele><time>2026-03-31T10:59:36Z</time></trkpt><trkpt lat="42.16285842828568" lon="-1.4218272543667858"><ele>323.33333333333337</ele><time>2026-03-31T10:59:37Z</time></trkpt><trkpt lat="42.162885541583826" lon="-1.4216066393923916"><ele>323.0</ele><time>2026-03-31T10:59:38Z</time></trkpt><trkpt lat="42.16291471206257" lon="-1.4213752304901726"><ele>323.0</ele><time>2026-03-31T10:59:39Z</time></trkpt><trkpt lat="42.16293959486988" lon="-1.4211415697416039"><ele>323.0</ele><time>2026-03-31T10:59:40Z</time></trkpt><trkpt lat="42.16295522617984" lon="-1.4208988470153956"><ele>323.0</ele><time>2026-03-31T10:59:41Z</time></trkpt><trkpt lat="42.162962774123706" lon="-1.4206643110474102"><ele>323.33333333333337</ele><time>2026-03-31T10:59:42Z</time></trkpt><trkpt lat="42.16296912402341" lon="-1.4204565733995689"><ele>323.6666666666667</ele><time>2026-03-31T10:59:43Z</time></trkpt><trkpt lat="42.163005950498984" lon="-1.4202635157944041"><ele>324.0</ele><time>2026-03-31T10:59:44Z</time></trkpt><trkpt lat="42.16306417857748" lon="-1.4200541914972786"><ele>324.0</ele><time>2026-03-31T10:59:45Z</time></trkpt><trkpt lat="42.163125837439836" lon="-1.419833520680259"><ele>324.0</ele><time>2026-03-31T10:59:46Z</time></trkpt><trkpt lat="42.1631575542527" lon="-1.4196555733289684"><ele>324.0</ele><time>2026-03-31T10:59:47Z</time></trkpt><trkpt lat="42.163173654044776" lon="-1.4195131125502747"><ele>324.0</ele><time>2026-03-31T10:59:48Z</time></trkpt><trkpt lat="42.163186495826" lon="-1.419405933038567"><ele>324.0</ele><time>2026-03-31T10:59:49Z</time></trkpt><trkpt lat="42.16321316020026" lon="-1.4192729111284799"><ele>324.0</ele><time>2026-03-31T10:59:50Z</time></trkpt><trkpt lat="42.16324224239992" lon="-1.4191468311955346"><ele>324.0</ele><time>2026-03-31T10:59:51Z</time></trkpt><trkpt lat="42.16326633936878" lon="-1.4190094746619573"><ele>324.0</ele><time>2026-03-31T10:59:52Z</time></trkpt><trkpt lat="42.16328798913992" lon="-1.418870130135024"><ele>324.0</ele><time>2026-03-31T10:59:53Z</time></trkpt><trkpt lat="42.1633065365471" lon="-1.4187303767760244"><ele>324.0</ele><time>2026-03-31T10:59:54Z</time></trkpt><trkpt lat="42.163328165460975" lon="-1.418586387819316"><ele>324.0</ele><time>2026-03-31T10:59:55Z</time></trkpt><trkpt lat="42.16334421862505" lon="-1.4184482340534648"><ele>324.0</ele><time>2026-03-31T10:59:56Z</time></trkpt><trkpt lat="42.16336352071069" lon="-1.41827899255092"><ele>324.0</ele><time>2026-03-31T10:59:57Z</time></trkpt><trkpt lat="42.16338845939127" lon="-1.4181244781732234"><ele>324.0</ele><time>2026-03-31T10:59:58Z</time></trkpt><trkpt lat="42.16342906071273" lon="-1.4179935355044164"><ele>324.0</ele><time>2026-03-31T10:59:59Z</time></trkpt><trkpt lat="42.16348961617775" lon="-1.4178669825721129"><ele>324.0</ele><time>2026-03-31T11:00:00Z</time></trkpt><trkpt lat="42.163579778926426" lon="-1.4177442416986867"><ele>324.0</ele><time>2026-03-31T11:00:01Z</time></trkpt><trkpt lat="42.1636842668356" lon="-1.4176309152958007"><ele>323.75</ele><time>2026-03-31T11:00:02Z</time></trkpt><trkpt lat="42.16380753370168" lon="-1.4175265551288694"><ele>323.5</ele><time>2026-03-31T11:00:03Z</time></trkpt><trkpt lat="42.16392842680114" lon="-1.4174249690322596"><ele>323.25</ele><time>2026-03-31T11:00:04Z</time></trkpt><trkpt lat="42.16404043625909" lon="-1.4173156967436673"><ele>323.0</ele><time>2026-03-31T11:00:05Z</time></trkpt><trkpt lat="42.16413957813816" lon="-1.4172035762864106"><ele>323.0</ele><time>2026-03-31T11:00:06Z</time></trkpt><trkpt lat="42.16422830341471" lon="-1.4170755852522443"><ele>323.0</ele><time>2026-03-31T11:00:07Z</time></trkpt><trkpt lat="42.164314492177844" lon="-1.4169220867637666"><ele>323.0</ele><time>2026-03-31T11:00:08Z</time></trkpt><trkpt lat="42.164392833414496" lon="-1.4167418252386443"><ele>323.0</ele><time>2026-03-31T11:00:09Z</time></trkpt><trkpt lat="42.16446821006039" lon="-1.4165800109464315"><ele>323.0</ele><time>2026-03-31T11:00:10Z</time></trkpt><trkpt lat="42.164549612880315" lon="-1.4164549087056018"><ele>323.0</ele><time>2026-03-31T11:00:11Z</time></trkpt><trkpt lat="42.164636388450916" lon="-1.4163520236780087"><ele>323.0</ele><time>2026-03-31T11:00:12Z</time></trkpt><trkpt lat="42.16470598440887" lon="-1.4162541334142515"><ele>323.0</ele><time>2026-03-31T11:00:13Z</time></trkpt><trkpt lat="42.164767364531485" lon="-1.4161568932752462"><ele>323.0</ele><time>2026-03-31T11:00:14Z</time></trkpt><trkpt lat="42.16481301074689" lon="-1.4160588996712606"><ele>322.79999999999995</ele><time>2026-03-31T11:00:15Z</time></trkpt><trkpt lat="42.16484285161295" lon="-1.4159808966427092"><ele>322.6</ele><time>2026-03-31T11:00:16Z</time></trkpt><trkpt lat="42.164899608937766" lon="-1.415842448464976"><ele>322.4</ele><time>2026-03-31T11:00:18Z</time></trkpt><trkpt lat="42.164982156767664" lon="-1.4157579307934405"><ele>322.20000000000005</ele><time>2026-03-31T11:00:20Z</time></trkpt><trkpt lat="42.165063088702276" lon="-1.4156621107985436"><ele>322.0</ele><time>2026-03-31T11:00:22Z</time></trkpt><trkpt lat="42.16516040059908" lon="-1.4155632576777486"><ele>322.0</ele><time>2026-03-31T11:00:24Z</time></trkpt><trkpt lat="42.16521664856717" lon="-1.415523130834281"><ele>322.0</ele><time>2026-03-31T11:00:25Z</time></trkpt><trkpt lat="42.165292636687084" lon="-1.4154547628447347"><ele>322.0</ele><time>2026-03-31T11:00:26Z</time></trkpt><trkpt lat="42.16538268993215" lon="-1.415366711929379"><ele>322.0</ele><time>2026-03-31T11:00:27Z</time></trkpt><trkpt lat="42.16542464894364" lon="-1.4152352436288196"><ele>322.0</ele><time>2026-03-31T11:00:29Z</time></trkpt><trkpt lat="42.16543385051867" lon="-1.4151247740134327"><ele>322.0</ele><time>2026-03-31T11:00:31Z</time></trkpt><trkpt lat="42.16547806840443" lon="-1.4152323620825449"><ele>322.0</ele><time>2026-03-31T11:00:34Z</time></trkpt><trkpt lat="42.165378108549845" lon="-1.4153797369868362"><ele>322.0</ele><time>2026-03-31T11:00:36Z</time></trkpt><trkpt lat="42.165314089910545" lon="-1.4154417104796417"><ele>322.0</ele><time>2026-03-31T11:00:37Z</time></trkpt><trkpt lat="42.165223327942876" lon="-1.4155385327326178"><ele>322.0</ele><time>2026-03-31T11:00:39Z</time></trkpt><trkpt lat="42.16515867790257" lon="-1.4156033080568053"><ele>322.0</ele><time>2026-03-31T11:00:41Z</time></trkpt><trkpt lat="42.165094393214" lon="-1.4155984034171614"><ele>322.0</ele><time>2026-03-31T11:00:45Z</time></trkpt><trkpt lat="42.16503839999356" lon="-1.4155021673174897"><ele>322.0</ele><time>2026-03-31T11:00:48Z</time></trkpt><trkpt lat="42.16501658781017" lon="-1.415410676929097"><ele>322.0</ele><time>2026-03-31T11:01:41Z</time></trkpt><trkpt lat="42.164966842192385" lon="-1.4153500234444085"><ele>322.0</ele><time>2026-03-31T11:02:09Z</time></trkpt><trkpt lat="42.164933580091564" lon="-1.4152762701634878"><ele>322.0</ele><time>2026-03-31T11:02:16Z</time></trkpt><trkpt lat="42.164993980300856" lon="-1.4153282201019006"><ele>322.0</ele><time>2026-03-31T11:05:18Z</time></trkpt><trkpt lat="42.16503723821813" lon="-1.4154045495339382"><ele>322.0</ele><time>2026-03-31T11:05:25Z</time></trkpt><trkpt lat="42.16506457440521" lon="-1.4154920709870138"><ele>322.0</ele><time>2026-03-31T11:06:30Z</time></trkpt><trkpt lat="42.16508020427906" lon="-1.415580557231924"><ele>322.0</ele><time>2026-03-31T11:06:32Z</time></trkpt><trkpt lat="42.16516996946379" lon="-1.415594249355942"><ele>322.0</ele><time>2026-03-31T11:06:35Z</time></trkpt><trkpt lat="42.16525734459234" lon="-1.4155068489169964"><ele>322.0</ele><time>2026-03-31T11:06:37Z</time></trkpt><trkpt lat="42.16532401568118" lon="-1.4154147963310817"><ele>322.0</ele><time>2026-03-31T11:06:38Z</time></trkpt><trkpt lat="42.16538621330715" lon="-1.4153161088143535"><ele>322.25</ele><time>2026-03-31T11:06:39Z</time></trkpt><trkpt lat="42.16541523467226" lon="-1.4152227836429547"><ele>322.5</ele><time>2026-03-31T11:06:40Z</time></trkpt><trkpt lat="42.16545597594003" lon="-1.4150741606900048"><ele>322.75</ele><time>2026-03-31T11:06:41Z</time></trkpt><trkpt lat="42.16550621632513" lon="-1.4148721503195167"><ele>323.0</ele><time>2026-03-31T11:06:42Z</time></trkpt><trkpt lat="42.165579017202894" lon="-1.4146567732502795"><ele>323.25</ele><time>2026-03-31T11:06:43Z</time></trkpt><trkpt lat="42.16565443748339" lon="-1.4144651228907696"><ele>323.5</ele><time>2026-03-31T11:06:44Z</time></trkpt><trkpt lat="42.16570812081496" lon="-1.4142982802193689"><ele>323.75</ele><time>2026-03-31T11:06:45Z</time></trkpt><trkpt lat="42.165764825368434" lon="-1.4141355251407697"><ele>324.0</ele><time>2026-03-31T11:06:46Z</time></trkpt><trkpt lat="42.165813523372215" lon="-1.4139684277998414"><ele>324.5</ele><time>2026-03-31T11:06:47Z</time></trkpt><trkpt lat="42.165842709004316" lon="-1.4138016773187"><ele>325.0</ele><time>2026-03-31T11:06:48Z</time></trkpt><trkpt lat="42.16586444398895" lon="-1.4136478623501683"><ele>325.5</ele><time>2026-03-31T11:06:49Z</time></trkpt><trkpt lat="42.165895341266754" lon="-1.4134948207200282"><ele>326.0</ele><time>2026-03-31T11:06:50Z</time></trkpt><trkpt lat="42.165940073120474" lon="-1.4133439826748129"><ele>326.0</ele><time>2026-03-31T11:06:51Z</time></trkpt><trkpt lat="42.165997787347486" lon="-1.413191385457334"><ele>326.0</ele><time>2026-03-31T11:06:52Z</time></trkpt><trkpt lat="42.16606229235297" lon="-1.4130164205743925"><ele>326.0</ele><time>2026-03-31T11:06:53Z</time></trkpt><trkpt lat="42.16611418740894" lon="-1.412851569654616"><ele>326.0</ele><time>2026-03-31T11:06:54Z</time></trkpt><trkpt lat="42.166159402137" lon="-1.4127002112419964"><ele>326.25</ele><time>2026-03-31T11:06:55Z</time></trkpt><trkpt lat="42.16622227162259" lon="-1.412569616785837"><ele>326.5</ele><time>2026-03-31T11:06:56Z</time></trkpt><trkpt lat="42.16631046795894" lon="-1.412449436268038"><ele>326.75</ele><time>2026-03-31T11:06:57Z</time></trkpt><trkpt lat="42.16641705892145" lon="-1.4123151090929507"><ele>327.0</ele><time>2026-03-31T11:06:58Z</time></trkpt><trkpt lat="42.16653877496791" lon="-1.4121792246572933"><ele>326.6666666666667</ele><time>2026-03-31T11:06:59Z</time></trkpt><trkpt lat="42.16666187187045" lon="-1.4120417920481363"><ele>326.33333333333337</ele><time>2026-03-31T11:07:00Z</time></trkpt><trkpt lat="42.16677761545725" lon="-1.411905113645489"><ele>326.0</ele><time>2026-03-31T11:07:01Z</time></trkpt><trkpt lat="42.166886500910735" lon="-1.4117613395689712"><ele>326.0</ele><time>2026-03-31T11:07:02Z</time></trkpt><trkpt lat="42.16699691129215" lon="-1.4116223035139548"><ele>326.0</ele><time>2026-03-31T11:07:03Z</time></trkpt><trkpt lat="42.16711374453632" lon="-1.4114952364240385"><ele>326.0</ele><time>2026-03-31T11:07:04Z</time></trkpt><trkpt lat="42.16723877329433" lon="-1.411385698694147"><ele>326.6666666666667</ele><time>2026-03-31T11:07:05Z</time></trkpt><trkpt lat="42.167366335966065" lon="-1.411280728948969"><ele>327.3333333333333</ele><time>2026-03-31T11:07:06Z</time></trkpt><trkpt lat="42.167491995209" lon="-1.4111725394236432"><ele>328.0</ele><time>2026-03-31T11:07:07Z</time></trkpt><trkpt lat="42.167628582465426" lon="-1.4110632089263244"><ele>328.0</ele><time>2026-03-31T11:07:08Z</time></trkpt><trkpt lat="42.16775569102167" lon="-1.4109844023865854"><ele>328.0</ele><time>2026-03-31T11:07:09Z</time></trkpt><trkpt lat="42.167876134095046" lon="-1.4108923463943404"><ele>328.0</ele><time>2026-03-31T11:07:10Z</time></trkpt><trkpt lat="42.1679853503479" lon="-1.410788010910678"><ele>328.0</ele><time>2026-03-31T11:07:11Z</time></trkpt><trkpt lat="42.168078095801555" lon="-1.4106719842949902"><ele>328.0</ele><time>2026-03-31T11:07:12Z</time></trkpt><trkpt lat="42.16817994443532" lon="-1.4105800420401762"><ele>328.0</ele><time>2026-03-31T11:07:13Z</time></trkpt><trkpt lat="42.16829330032284" lon="-1.4104991351119038"><ele>328.0</ele><time>2026-03-31T11:07:14Z</time></trkpt><trkpt lat="42.168405260873605" lon="-1.4104113115019943"><ele>328.0</ele><time>2026-03-31T11:07:15Z</time></trkpt><trkpt lat="42.16852172972449" lon="-1.4103206871775653"><ele>328.25</ele><time>2026-03-31T11:07:16Z</time></trkpt><trkpt lat="42.1686426549072" lon="-1.4102132002171546"><ele>328.5</ele><time>2026-03-31T11:07:17Z</time></trkpt><trkpt lat="42.16875055435744" lon="-1.4101041523664501"><ele>328.75</ele><time>2026-03-31T11:07:18Z</time></trkpt><trkpt lat="42.168857006853365" lon="-1.4099973835018071"><ele>329.0</ele><time>2026-03-31T11:07:19Z</time></trkpt><trkpt lat="42.16899159328757" lon="-1.4098703620642836"><ele>329.25</ele><time>2026-03-31T11:07:20Z</time></trkpt><trkpt lat="42.16912491625198" lon="-1.4097530547724464"><ele>329.5</ele><time>2026-03-31T11:07:21Z</time></trkpt><trkpt lat="42.16924940560588" lon="-1.4096527642722474"><ele>329.75</ele><time>2026-03-31T11:07:22Z</time></trkpt><trkpt lat="42.16936559499699" lon="-1.4095548498149684"><ele>330.0</ele><time>2026-03-31T11:07:23Z</time></trkpt><trkpt lat="42.16947336928827" lon="-1.4094475723796083"><ele>330.25</ele><time>2026-03-31T11:07:24Z</time></trkpt><trkpt lat="42.16958336518086" lon="-1.409343254195907"><ele>330.5</ele><time>2026-03-31T11:07:25Z</time></trkpt><trkpt lat="42.169701567032995" lon="-1.4092547510281634"><ele>330.75</ele><time>2026-03-31T11:07:26Z</time></trkpt><trkpt lat="42.16981588426434" lon="-1.409161896157221"><ele>331.0</ele><time>2026-03-31T11:07:27Z</time></trkpt><trkpt lat="42.169917100611734" lon="-1.4090586419665556"><ele>331.0</ele><time>2026-03-31T11:07:28Z</time></trkpt><trkpt lat="42.1700024261158" lon="-1.4089624796673585"><ele>331.0</ele><time>2026-03-31T11:07:29Z</time></trkpt><trkpt lat="42.17009411883292" lon="-1.4088660608589938"><ele>331.0</ele><time>2026-03-31T11:07:30Z</time></trkpt><trkpt lat="42.17020326117021" lon="-1.4088076286957354"><ele>331.0</ele><time>2026-03-31T11:07:31Z</time></trkpt><trkpt lat="42.170314820758136" lon="-1.4087835078953472"><ele>331.0</ele><time>2026-03-31T11:07:32Z</time></trkpt><trkpt lat="42.17042177785928" lon="-1.4087691702751675"><ele>331.0</ele><time>2026-03-31T11:07:33Z</time></trkpt><trkpt lat="42.17051756534416" lon="-1.4087534877851653"><ele>331.0</ele><time>2026-03-31T11:07:34Z</time></trkpt><trkpt lat="42.17060371251606" lon="-1.408740795663652"><ele>331.0</ele><time>2026-03-31T11:07:35Z</time></trkpt><trkpt lat="42.17070783814752" lon="-1.408715249442465"><ele>331.0</ele><time>2026-03-31T11:07:36Z</time></trkpt><trkpt lat="42.17083347929364" lon="-1.4086791272062826"><ele>331.4</ele><time>2026-03-31T11:07:37Z</time></trkpt><trkpt lat="42.170932782185055" lon="-1.4086563013942355"><ele>331.8</ele><time>2026-03-31T11:07:38Z</time></trkpt><trkpt lat="42.171010631024316" lon="-1.4086406338605613"><ele>332.2</ele><time>2026-03-31T11:07:39Z</time></trkpt><trkpt lat="42.171080502556705" lon="-1.4086273066574402"><ele>332.59999999999997</ele><time>2026-03-31T11:07:40Z</time></trkpt><trkpt lat="42.17121871966196" lon="-1.4086012016695095"><ele>333.0</ele><time>2026-03-31T11:07:42Z</time></trkpt><trkpt lat="42.171315110963526" lon="-1.408566382554572"><ele>333.0</ele><time>2026-03-31T11:07:44Z</time></trkpt><trkpt lat="42.171389910666015" lon="-1.4085431608766648"><ele>333.0</ele><time>2026-03-31T11:07:45Z</time></trkpt><trkpt lat="42.17150858708225" lon="-1.4085202733627515"><ele>333.0</ele><time>2026-03-31T11:07:46Z</time></trkpt><trkpt lat="42.17161499945185" lon="-1.4085063257373867"><ele>333.0</ele><time>2026-03-31T11:07:47Z</time></trkpt><trkpt lat="42.17171775604166" lon="-1.4084971601715965"><ele>333.0</ele><time>2026-03-31T11:07:48Z</time></trkpt><trkpt lat="42.171806064065784" lon="-1.4084937233912629"><ele>332.8333333333333</ele><time>2026-03-31T11:07:49Z</time></trkpt><trkpt lat="42.17187169985344" lon="-1.4084914156885038"><ele>332.6666666666667</ele><time>2026-03-31T11:07:50Z</time></trkpt><trkpt lat="42.17194630172926" lon="-1.4084336910742141"><ele>332.5</ele><time>2026-03-31T11:07:52Z</time></trkpt><trkpt lat="42.171948715414864" lon="-1.4083410284859634"><ele>332.33333333333337</ele><time>2026-03-31T11:07:54Z</time></trkpt><trkpt lat="42.17190077557856" lon="-1.4082052811774934"><ele>332.1666666666667</ele><time>2026-03-31T11:07:56Z</time></trkpt><trkpt lat="42.17184453795071" lon="-1.4081198421973593"><ele>332.0</ele><time>2026-03-31T11:07:57Z</time></trkpt><trkpt lat="42.17179556515517" lon="-1.4080566790695377"><ele>332.0</ele><time>2026-03-31T11:07:58Z</time></trkpt><trkpt lat="42.17173052470909" lon="-1.4079773221446694"><ele>332.0</ele><time>2026-03-31T11:08:00Z</time></trkpt><trkpt lat="42.17180371330383" lon="-1.4079643538771696"><ele>332.0</ele><time>2026-03-31T11:08:05Z</time></trkpt><trkpt lat="42.17183598894565" lon="-1.4081257172518697"><ele>332.0</ele><time>2026-03-31T11:08:07Z</time></trkpt><trkpt lat="42.17187763618043" lon="-1.408209320802478"><ele>332.0</ele><time>2026-03-31T11:08:09Z</time></trkpt><trkpt lat="42.171923950782464" lon="-1.4082754106134938"><ele>332.0</ele><time>2026-03-31T11:08:10Z</time></trkpt><trkpt lat="42.171996228508334" lon="-1.4083888368305413"><ele>332.0</ele><time>2026-03-31T11:08:12Z</time></trkpt><trkpt lat="42.1720407549037" lon="-1.408450423944474"><ele>332.0</ele><time>2026-03-31T11:08:13Z</time></trkpt><trkpt lat="42.172109255643605" lon="-1.40848620952642"><ele>332.0</ele><time>2026-03-31T11:08:15Z</time></trkpt><trkpt lat="42.172220250107856" lon="-1.408458494174251"><ele>332.0</ele><time>2026-03-31T11:08:17Z</time></trkpt><trkpt lat="42.17232547196915" lon="-1.4084234583469408"><ele>332.0</ele><time>2026-03-31T11:08:19Z</time></trkpt><trkpt lat="42.17242233180273" lon="-1.408395824349147"><ele>332.1666666666667</ele><time>2026-03-31T11:08:20Z</time></trkpt><trkpt lat="42.172514031145596" lon="-1.4083492595646658"><ele>332.33333333333337</ele><time>2026-03-31T11:08:21Z</time></trkpt><trkpt lat="42.17259043720596" lon="-1.408288286060601"><ele>332.5</ele><time>2026-03-31T11:08:22Z</time></trkpt><trkpt lat="42.17265013763793" lon="-1.4082249029830805"><ele>332.6666666666667</ele><time>2026-03-31T11:08:23Z</time></trkpt><trkpt lat="42.17271112341522" lon="-1.4081577515170698"><ele>332.8333333333333</ele><time>2026-03-31T11:08:24Z</time></trkpt><trkpt lat="42.17277434828042" lon="-1.4080868421724058"><ele>333.0</ele><time>2026-03-31T11:08:25Z</time></trkpt><trkpt lat="42.17282234661223" lon="-1.4080100755595784"><ele>333.0</ele><time>2026-03-31T11:08:26Z</time></trkpt><trkpt lat="42.17288505108919" lon="-1.4078711688773515"><ele>333.0</ele><time>2026-03-31T11:08:28Z</time></trkpt><trkpt lat="42.17292253742225" lon="-1.4077731948550003"><ele>333.0</ele><time>2026-03-31T11:08:30Z</time></trkpt><trkpt lat="42.172951676499615" lon="-1.4076976776683077"><ele>333.0</ele><time>2026-03-31T11:08:32Z</time></trkpt><trkpt lat="42.17298727250939" lon="-1.4076119278841521"><ele>333.0</ele><time>2026-03-31T11:08:35Z</time></trkpt><trkpt lat="42.173059566837864" lon="-1.4074775812536786"><ele>333.0</ele><time>2026-03-31T11:08:56Z</time></trkpt><trkpt lat="42.173160259085826" lon="-1.4074097915582189"><ele>333.0</ele><time>2026-03-31T11:08:58Z</time></trkpt><trkpt lat="42.173220947839276" lon="-1.407357396156152"><ele>333.0</ele><time>2026-03-31T11:08:59Z</time></trkpt><trkpt lat="42.17327327391577" lon="-1.407283204373001"><ele>333.0</ele><time>2026-03-31T11:09:00Z</time></trkpt><trkpt lat="42.17331726875572" lon="-1.4071960803604147"><ele>333.0</ele><time>2026-03-31T11:09:01Z</time></trkpt><trkpt lat="42.17335352203222" lon="-1.4071170037100145"><ele>333.0</ele><time>2026-03-31T11:09:02Z</time></trkpt><trkpt lat="42.17339234948663" lon="-1.406975497040603"><ele>333.75</ele><time>2026-03-31T11:09:04Z</time></trkpt><trkpt lat="42.17341497334792" lon="-1.4067972139059257"><ele>334.5</ele><time>2026-03-31T11:09:06Z</time></trkpt><trkpt lat="42.17341074434185" lon="-1.4066794907975486"><ele>335.25</ele><time>2026-03-31T11:09:07Z</time></trkpt><trkpt lat="42.17337646655906" lon="-1.406528384634212"><ele>336.0</ele><time>2026-03-31T11:09:08Z</time></trkpt><trkpt lat="42.17336771379926" lon="-1.4063633359126952"><ele>336.0</ele><time>2026-03-31T11:09:09Z</time></trkpt><trkpt lat="42.17337431107123" lon="-1.4061824200599176"><ele>336.0</ele><time>2026-03-31T11:09:10Z</time></trkpt><trkpt lat="42.17336414242982" lon="-1.4059950580767104"><ele>336.0</ele><time>2026-03-31T11:09:11Z</time></trkpt><trkpt lat="42.17335233115942" lon="-1.405802433546416"><ele>336.0</ele><time>2026-03-31T11:09:12Z</time></trkpt><trkpt lat="42.173335104876415" lon="-1.4056127248215873"><ele>336.0</ele><time>2026-03-31T11:09:13Z</time></trkpt><trkpt lat="42.17332377726554" lon="-1.4054214506941394"><ele>336.0</ele><time>2026-03-31T11:09:14Z</time></trkpt><trkpt lat="42.173312656894225" lon="-1.4052293808204674"><ele>336.0</ele><time>2026-03-31T11:09:15Z</time></trkpt><trkpt lat="42.17330504740567" lon="-1.4050372062715688"><ele>336.0</ele><time>2026-03-31T11:09:16Z</time></trkpt><trkpt lat="42.173294947831856" lon="-1.4048458772079881"><ele>336.0</ele><time>2026-03-31T11:09:17Z</time></trkpt><trkpt lat="42.17328406168261" lon="-1.4046587112936013"><ele>336.0</ele><time>2026-03-31T11:09:18Z</time></trkpt><trkpt lat="42.173270472927435" lon="-1.4044767855994436"><ele>336.0</ele><time>2026-03-31T11:09:19Z</time></trkpt><trkpt lat="42.17325938077478" lon="-1.404290415184881"><ele>336.0</ele><time>2026-03-31T11:09:20Z</time></trkpt><trkpt lat="42.17325146301349" lon="-1.4040971006998382"><ele>336.0</ele><time>2026-03-31T11:09:21Z</time></trkpt><trkpt lat="42.17323834088589" lon="-1.4039039705885554"><ele>336.0</ele><time>2026-03-31T11:09:22Z</time></trkpt><trkpt lat="42.17322071720947" lon="-1.4037071640146401"><ele>336.0</ele><time>2026-03-31T11:09:23Z</time></trkpt><trkpt lat="42.173211975765405" lon="-1.4035043724517133"><ele>336.0</ele><time>2026-03-31T11:09:24Z</time></trkpt><trkpt lat="42.173202868958" lon="-1.403281521943468"><ele>337.0</ele><time>2026-03-31T11:09:25Z</time></trkpt><trkpt lat="42.17319870946808" lon="-1.4030709096050635"><ele>338.0</ele><time>2026-03-31T11:09:26Z</time></trkpt><trkpt lat="42.173170690758695" lon="-1.4027962231149156"><ele>339.0</ele><time>2026-03-31T11:09:27Z</time></trkpt><trkpt lat="42.17315662241489" lon="-1.4025436317421178"><ele>339.6666666666667</ele><time>2026-03-31T11:09:28Z</time></trkpt><trkpt lat="42.173143846666406" lon="-1.4022913604409277"><ele>340.33333333333337</ele><time>2026-03-31T11:09:29Z</time></trkpt><trkpt lat="42.17313174247157" lon="-1.4020362892171143"><ele>341.0</ele><time>2026-03-31T11:09:30Z</time></trkpt><trkpt lat="42.17311779834301" lon="-1.4017863746201442"><ele>341.0</ele><time>2026-03-31T11:09:31Z</time></trkpt><trkpt lat="42.173102408581585" lon="-1.4015424304857356"><ele>341.0</ele><time>2026-03-31T11:09:32Z</time></trkpt><trkpt lat="42.173085924748996" lon="-1.401301790665771"><ele>341.0</ele><time>2026-03-31T11:09:33Z</time></trkpt><trkpt lat="42.17306845779277" lon="-1.4010812335763347"><ele>341.33333333333337</ele><time>2026-03-31T11:09:34Z</time></trkpt><trkpt lat="42.17305157300516" lon="-1.4008736618564932"><ele>341.6666666666667</ele><time>2026-03-31T11:09:35Z</time></trkpt><trkpt lat="42.17303986676516" lon="-1.4006748768318127"><ele>342.0</ele><time>2026-03-31T11:09:36Z</time></trkpt><trkpt lat="42.17303266457272" lon="-1.4004735604493013"><ele>342.5</ele><time>2026-03-31T11:09:37Z</time></trkpt><trkpt lat="42.173029340599" lon="-1.400274395664421"><ele>343.0</ele><time>2026-03-31T11:09:38Z</time></trkpt><trkpt lat="42.17303816442952" lon="-1.4000790380230672"><ele>343.5</ele><time>2026-03-31T11:09:39Z</time></trkpt><trkpt lat="42.17306162992249" lon="-1.399879277876556"><ele>344.0</ele><time>2026-03-31T11:09:40Z</time></trkpt><trkpt lat="42.17309689158463" lon="-1.399678839772231"><ele>344.6666666666667</ele><time>2026-03-31T11:09:41Z</time></trkpt><trkpt lat="42.1731316555739" lon="-1.399471937502904"><ele>345.3333333333333</ele><time>2026-03-31T11:09:42Z</time></trkpt><trkpt lat="42.17316750569283" lon="-1.399259897745827"><ele>346.0</ele><time>2026-03-31T11:09:43Z</time></trkpt><trkpt lat="42.173198556511785" lon="-1.3990489784946398"><ele>346.0</ele><time>2026-03-31T11:09:44Z</time></trkpt><trkpt lat="42.173227599542756" lon="-1.3988384229219597"><ele>346.0</ele><time>2026-03-31T11:09:45Z</time></trkpt><trkpt lat="42.17325035116777" lon="-1.3986343602451263"><ele>346.0</ele><time>2026-03-31T11:09:46Z</time></trkpt><trkpt lat="42.173273757804296" lon="-1.3984342533881182"><ele>346.66666666666663</ele><time>2026-03-31T11:09:47Z</time></trkpt><trkpt lat="42.1733009488304" lon="-1.3982390286934068"><ele>347.3333333333333</ele><time>2026-03-31T11:09:48Z</time></trkpt><trkpt lat="42.17332692027039" lon="-1.3980381238483746"><ele>348.0</ele><time>2026-03-31T11:09:49Z</time></trkpt><trkpt lat="42.17334868861475" lon="-1.3978302174988595"><ele>348.5</ele><time>2026-03-31T11:09:50Z</time></trkpt><trkpt lat="42.17335573886207" lon="-1.3976080818241337"><ele>349.0</ele><time>2026-03-31T11:09:51Z</time></trkpt><trkpt lat="42.173400412005364" lon="-1.3974459174054386"><ele>349.5</ele><time>2026-03-31T11:09:52Z</time></trkpt><trkpt lat="42.173413835421634" lon="-1.397307670417643"><ele>350.0</ele><time>2026-03-31T11:09:53Z</time></trkpt><trkpt lat="42.17342858070068" lon="-1.397196611030096"><ele>350.25</ele><time>2026-03-31T11:09:54Z</time></trkpt><trkpt lat="42.1734519999467" lon="-1.3969852832954295"><ele>350.5</ele><time>2026-03-31T11:09:56Z</time></trkpt><trkpt lat="42.17360027312045" lon="-1.3969548739926818"><ele>350.75</ele><time>2026-03-31T11:09:57Z</time></trkpt><trkpt lat="42.173719235997076" lon="-1.3969171838631267"><ele>351.0</ele><time>2026-03-31T11:09:58Z</time></trkpt><trkpt lat="42.17382430330716" lon="-1.3967844713207038"><ele>351.0</ele><time>2026-03-31T11:09:59Z</time></trkpt><trkpt lat="42.17392323352536" lon="-1.396624924058568"><ele>351.0</ele><time>2026-03-31T11:10:00Z</time></trkpt><trkpt lat="42.17393456949799" lon="-1.396508188872648"><ele>351.0</ele><time>2026-03-31T11:10:01Z</time></trkpt><trkpt lat="42.17395740229718" lon="-1.396374687320163"><ele>351.0</ele><time>2026-03-31T11:10:02Z</time></trkpt><trkpt lat="42.17400624017378" lon="-1.39612976992544"><ele>351.6666666666667</ele><time>2026-03-31T11:10:03Z</time></trkpt><trkpt lat="42.174048491378066" lon="-1.3959132696370735"><ele>352.33333333333337</ele><time>2026-03-31T11:10:04Z</time></trkpt><trkpt lat="42.174091396365625" lon="-1.3957168891828486"><ele>353.0</ele><time>2026-03-31T11:10:05Z</time></trkpt><trkpt lat="42.17411726080663" lon="-1.3955114373770166"><ele>353.25</ele><time>2026-03-31T11:10:06Z</time></trkpt><trkpt lat="42.17415502455397" lon="-1.3953115075705504"><ele>353.5</ele><time>2026-03-31T11:10:07Z</time></trkpt><trkpt lat="42.17419014741072" lon="-1.3951205832515814"><ele>353.75</ele><time>2026-03-31T11:10:08Z</time></trkpt><trkpt lat="42.17421991767667" lon="-1.394932448141625"><ele>354.0</ele><time>2026-03-31T11:10:09Z</time></trkpt><trkpt lat="42.17425754723956" lon="-1.3947522705419824"><ele>354.2</ele><time>2026-03-31T11:10:10Z</time></trkpt><trkpt lat="42.17427780180413" lon="-1.3946016055046297"><ele>354.4</ele><time>2026-03-31T11:10:11Z</time></trkpt><trkpt lat="42.174293389821685" lon="-1.3944588390222659"><ele>354.6</ele><time>2026-03-31T11:10:12Z</time></trkpt><trkpt lat="42.174342332717956" lon="-1.3943210204042855"><ele>354.8</ele><time>2026-03-31T11:10:13Z</time></trkpt><trkpt lat="42.17441703988378" lon="-1.394207774757777"><ele>355.0</ele><time>2026-03-31T11:10:14Z</time></trkpt><trkpt lat="42.17451250534654" lon="-1.3941186649272177"><ele>355.0</ele><time>2026-03-31T11:10:15Z</time></trkpt><trkpt lat="42.174627356942864" lon="-1.3940996103137577"><ele>355.0</ele><time>2026-03-31T11:10:16Z</time></trkpt><trkpt lat="42.17474639224104" lon="-1.3940978645103574"><ele>355.0</ele><time>2026-03-31T11:10:17Z</time></trkpt><trkpt lat="42.17487786485531" lon="-1.3940858909682077"><ele>355.0</ele><time>2026-03-31T11:10:18Z</time></trkpt><trkpt lat="42.17501895293285" lon="-1.3940565524485249"><ele>355.0</ele><time>2026-03-31T11:10:19Z</time></trkpt><trkpt lat="42.175164495261974" lon="-1.3940823058280578"><ele>355.0</ele><time>2026-03-31T11:10:20Z</time></trkpt><trkpt lat="42.17531585677686" lon="-1.394107012630858"><ele>355.0</ele><time>2026-03-31T11:10:21Z</time></trkpt><trkpt lat="42.17546288419774" lon="-1.39413282222039"><ele>355.0</ele><time>2026-03-31T11:10:22Z</time></trkpt><trkpt lat="42.17561565837151" lon="-1.3941520470293733"><ele>355.5</ele><time>2026-03-31T11:10:23Z</time></trkpt><trkpt lat="42.17575382909304" lon="-1.3941673208009404"><ele>356.0</ele><time>2026-03-31T11:10:24Z</time></trkpt><trkpt lat="42.17589245545489" lon="-1.3941812392094866"><ele>356.5</ele><time>2026-03-31T11:10:25Z</time></trkpt><trkpt lat="42.176034101853794" lon="-1.3942024304205418"><ele>357.0</ele><time>2026-03-31T11:10:26Z</time></trkpt><trkpt lat="42.17617462734997" lon="-1.3942302788752534"><ele>357.0</ele><time>2026-03-31T11:10:27Z</time></trkpt><trkpt lat="42.17631919909335" lon="-1.3942618638818982"><ele>357.0</ele><time>2026-03-31T11:10:28Z</time></trkpt><trkpt lat="42.17646206004366" lon="-1.3942902028222361"><ele>357.0</ele><time>2026-03-31T11:10:29Z</time></trkpt><trkpt lat="42.17660568483626" lon="-1.3943212141212047"><ele>357.0</ele><time>2026-03-31T11:10:30Z</time></trkpt><trkpt lat="42.17674908952313" lon="-1.3943511406734925"><ele>357.40000000000003</ele><time>2026-03-31T11:10:31Z</time></trkpt><trkpt lat="42.17687965166928" lon="-1.3943660250314267"><ele>357.8</ele><time>2026-03-31T11:10:32Z</time></trkpt><trkpt lat="42.1769827911547" lon="-1.3943628017164535"><ele>358.2</ele><time>2026-03-31T11:10:33Z</time></trkpt><trkpt lat="42.177059899654104" lon="-1.3943602387452136"><ele>358.6</ele><time>2026-03-31T11:10:34Z</time></trkpt><trkpt lat="42.177164362145604" lon="-1.3943666695137142"><ele>359.0</ele><time>2026-03-31T11:10:36Z</time></trkpt><trkpt lat="42.17728444206788" lon="-1.3943631059638149"><ele>359.75</ele><time>2026-03-31T11:10:38Z</time></trkpt><trkpt lat="42.177363456574724" lon="-1.394355970126645"><ele>360.5</ele><time>2026-03-31T11:10:39Z</time></trkpt><trkpt lat="42.177470273674714" lon="-1.3943401376574387"><ele>361.25</ele><time>2026-03-31T11:10:40Z</time></trkpt><trkpt lat="42.17761078841299" lon="-1.3942893401923204"><ele>362.0</ele><time>2026-03-31T11:10:41Z</time></trkpt><trkpt lat="42.17777089560312" lon="-1.3942648905693686"><ele>362.0</ele><time>2026-03-31T11:10:42Z</time></trkpt><trkpt lat="42.17794596385049" lon="-1.3941983569909306"><ele>362.0</ele><time>2026-03-31T11:10:43Z</time></trkpt><trkpt lat="42.178127340490505" lon="-1.394156126092922"><ele>362.0</ele><time>2026-03-31T11:10:44Z</time></trkpt><trkpt lat="42.17830979989309" lon="-1.3940821133102617"><ele>362.0</ele><time>2026-03-31T11:10:45Z</time></trkpt><trkpt lat="42.178489303333784" lon="-1.3940322815836468"><ele>362.0</ele><time>2026-03-31T11:10:46Z</time></trkpt><trkpt lat="42.17866240575433" lon="-1.3939862956509004"><ele>362.0</ele><time>2026-03-31T11:10:47Z</time></trkpt><trkpt lat="42.17883455401065" lon="-1.3939347631776438"><ele>362.0</ele><time>2026-03-31T11:10:48Z</time></trkpt><trkpt lat="42.17900824779275" lon="-1.3938870107851473"><ele>362.0</ele><time>2026-03-31T11:10:49Z</time></trkpt><trkpt lat="42.17918601651167" lon="-1.3938369127010002"><ele>362.0</ele><time>2026-03-31T11:10:50Z</time></trkpt><trkpt lat="42.17935452721064" lon="-1.3937837579807661"><ele>362.6666666666667</ele><time>2026-03-31T11:10:51Z</time></trkpt><trkpt lat="42.17953375248831" lon="-1.39373541989743"><ele>363.3333333333333</ele><time>2026-03-31T11:10:52Z</time></trkpt><trkpt lat="42.17971526609996" lon="-1.3936791648940734"><ele>364.0</ele><time>2026-03-31T11:10:53Z</time></trkpt><trkpt lat="42.17991210440377" lon="-1.393611695907621"><ele>364.3333333333333</ele><time>2026-03-31T11:10:54Z</time></trkpt><trkpt lat="42.18011912063321" lon="-1.3935453353514873"><ele>364.6666666666667</ele><time>2026-03-31T11:10:55Z</time></trkpt><trkpt lat="42.18033152664574" lon="-1.3934863663968828"><ele>365.0</ele><time>2026-03-31T11:10:56Z</time></trkpt><trkpt lat="42.18054230705976" lon="-1.3934284369775134"><ele>366.0</ele><time>2026-03-31T11:10:57Z</time></trkpt><trkpt lat="42.18075242204094" lon="-1.3933637886976737"><ele>367.0</ele><time>2026-03-31T11:10:58Z</time></trkpt><trkpt lat="42.18096375029505" lon="-1.3932936041163582"><ele>368.0</ele><time>2026-03-31T11:10:59Z</time></trkpt><trkpt lat="42.18117071078803" lon="-1.3932337775552812"><ele>368.0</ele><time>2026-03-31T11:11:00Z</time></trkpt><trkpt lat="42.18136936277986" lon="-1.3931823596288675"><ele>368.0</ele><time>2026-03-31T11:11:01Z</time></trkpt><trkpt lat="42.181565519932" lon="-1.3931261509462523"><ele>368.0</ele><time>2026-03-31T11:11:02Z</time></trkpt><trkpt lat="42.181761409900474" lon="-1.3930690577922877"><ele>368.0</ele><time>2026-03-31T11:11:03Z</time></trkpt><trkpt lat="42.18194884697745" lon="-1.3930167466192234"><ele>368.0</ele><time>2026-03-31T11:11:04Z</time></trkpt><trkpt lat="42.18213335524291" lon="-1.3929726911806717"><ele>368.0</ele><time>2026-03-31T11:11:05Z</time></trkpt><trkpt lat="42.18231238566847" lon="-1.3929287131371424"><ele>368.6666666666667</ele><time>2026-03-31T11:11:06Z</time></trkpt><trkpt lat="42.182494431122784" lon="-1.392883344335918"><ele>369.3333333333333</ele><time>2026-03-31T11:11:07Z</time></trkpt><trkpt lat="42.182681886109066" lon="-1.392833297776406"><ele>370.0</ele><time>2026-03-31T11:11:08Z</time></trkpt><trkpt lat="42.18287582641701" lon="-1.392775679410201"><ele>370.0</ele><time>2026-03-31T11:11:09Z</time></trkpt><trkpt lat="42.183065893955835" lon="-1.3927267139804247"><ele>370.0</ele><time>2026-03-31T11:11:10Z</time></trkpt><trkpt lat="42.183228910972986" lon="-1.3926752278810723"><ele>370.0</ele><time>2026-03-31T11:11:11Z</time></trkpt><trkpt lat="42.18338972007019" lon="-1.3926274483363996"><ele>370.66666666666663</ele><time>2026-03-31T11:11:12Z</time></trkpt><trkpt lat="42.183546596384865" lon="-1.3925795154289222"><ele>371.3333333333333</ele><time>2026-03-31T11:11:13Z</time></trkpt><trkpt lat="42.18371293863507" lon="-1.3925351582712155"><ele>372.0</ele><time>2026-03-31T11:11:14Z</time></trkpt><trkpt lat="42.18387971285821" lon="-1.39250095543188"><ele>372.0</ele><time>2026-03-31T11:11:15Z</time></trkpt><trkpt lat="42.18404602285796" lon="-1.3924362436770237"><ele>372.0</ele><time>2026-03-31T11:11:16Z</time></trkpt><trkpt lat="42.18422946204039" lon="-1.3923979775290514"><ele>372.0</ele><time>2026-03-31T11:11:17Z</time></trkpt><trkpt lat="42.184406777396234" lon="-1.3923397027334052"><ele>372.0</ele><time>2026-03-31T11:11:18Z</time></trkpt><trkpt lat="42.18456707569942" lon="-1.392286260888991"><ele>372.0</ele><time>2026-03-31T11:11:19Z</time></trkpt><trkpt lat="42.18470561724807" lon="-1.3921993676306108"><ele>372.0</ele><time>2026-03-31T11:11:20Z</time></trkpt><trkpt lat="42.184856182690005" lon="-1.3921408530532466"><ele>372.6666666666667</ele><time>2026-03-31T11:11:21Z</time></trkpt><trkpt lat="42.18502587419429" lon="-1.3921004453854187"><ele>373.33333333333337</ele><time>2026-03-31T11:11:22Z</time></trkpt><trkpt lat="42.18519656744317" lon="-1.392091719424269"><ele>374.0</ele><time>2026-03-31T11:11:23Z</time></trkpt><trkpt lat="42.18535477969191" lon="-1.392088588773007"><ele>374.0</ele><time>2026-03-31T11:11:24Z</time></trkpt><trkpt lat="42.18553454242874" lon="-1.392033315480265"><ele>374.0</ele><time>2026-03-31T11:11:25Z</time></trkpt><trkpt lat="42.18572859027309" lon="-1.3919744690016786"><ele>374.0</ele><time>2026-03-31T11:11:26Z</time></trkpt><trkpt lat="42.18590951138052" lon="-1.3919251696002575"><ele>374.0</ele><time>2026-03-31T11:11:27Z</time></trkpt><trkpt lat="42.18608110950726" lon="-1.3918854017195958"><ele>374.0</ele><time>2026-03-31T11:11:28Z</time></trkpt><trkpt lat="42.186242935445755" lon="-1.3918338289110148"><ele>374.0</ele><time>2026-03-31T11:11:29Z</time></trkpt><trkpt lat="42.18637276885665" lon="-1.39179808478069"><ele>374.0</ele><time>2026-03-31T11:11:30Z</time></trkpt><trkpt lat="42.18649040759246" lon="-1.3917728029109877"><ele>374.0</ele><time>2026-03-31T11:11:31Z</time></trkpt><trkpt lat="42.18660021980394" lon="-1.3917615398076169"><ele>374.0</ele><time>2026-03-31T11:11:32Z</time></trkpt><trkpt lat="42.18671869575216" lon="-1.3917680493802749"><ele>374.0</ele><time>2026-03-31T11:11:33Z</time></trkpt><trkpt lat="42.186851287365016" lon="-1.3918151614021312"><ele>374.0</ele><time>2026-03-31T11:11:34Z</time></trkpt><trkpt lat="42.18697226854463" lon="-1.3918961647240766"><ele>374.0</ele><time>2026-03-31T11:11:35Z</time></trkpt><trkpt lat="42.18710532093978" lon="-1.3919882402145827"><ele>374.0</ele><time>2026-03-31T11:11:36Z</time></trkpt><trkpt lat="42.187232458113165" lon="-1.3921209159327093"><ele>374.0</ele><time>2026-03-31T11:11:37Z</time></trkpt><trkpt lat="42.18736516617055" lon="-1.3922557498727592"><ele>373.75</ele><time>2026-03-31T11:11:38Z</time></trkpt><trkpt lat="42.18747933690047" lon="-1.392371414802963"><ele>373.5</ele><time>2026-03-31T11:11:39Z</time></trkpt><trkpt lat="42.18759001317335" lon="-1.3924811785846756"><ele>373.25</ele><time>2026-03-31T11:11:40Z</time></trkpt><trkpt lat="42.187680027221305" lon="-1.392624510767062"><ele>373.0</ele><time>2026-03-31T11:11:41Z</time></trkpt><trkpt lat="42.187798806277506" lon="-1.3927129016058237"><ele>373.0</ele><time>2026-03-31T11:11:42Z</time></trkpt><trkpt lat="42.18792074537732" lon="-1.3927975430929058"><ele>373.0</ele><time>2026-03-31T11:11:43Z</time></trkpt><trkpt lat="42.18802065813079" lon="-1.3929154406996398"><ele>373.0</ele><time>2026-03-31T11:11:44Z</time></trkpt><trkpt lat="42.18813516806688" lon="-1.3930169867137483"><ele>373.0</ele><time>2026-03-31T11:11:45Z</time></trkpt><trkpt lat="42.18823473892067" lon="-1.3931150790336968"><ele>373.75</ele><time>2026-03-31T11:11:46Z</time></trkpt><trkpt lat="42.188333193429756" lon="-1.3931961553702168"><ele>374.5</ele><time>2026-03-31T11:11:47Z</time></trkpt><trkpt lat="42.18844793397018" lon="-1.3932896413813318"><ele>375.25</ele><time>2026-03-31T11:11:48Z</time></trkpt><trkpt lat="42.18857896822864" lon="-1.393329851949138"><ele>376.0</ele><time>2026-03-31T11:11:49Z</time></trkpt><trkpt lat="42.188713399506675" lon="-1.393345099810933"><ele>376.0</ele><time>2026-03-31T11:11:50Z</time></trkpt><trkpt lat="42.18884321617405" lon="-1.3933001763826085"><ele>376.0</ele><time>2026-03-31T11:11:51Z</time></trkpt><trkpt lat="42.18896594254687" lon="-1.3932392014293906"><ele>376.0</ele><time>2026-03-31T11:11:52Z</time></trkpt><trkpt lat="42.189113786292786" lon="-1.3932006481652708"><ele>376.0</ele><time>2026-03-31T11:11:53Z</time></trkpt><trkpt lat="42.1892598915548" lon="-1.3931413380259874"><ele>375.66666666666663</ele><time>2026-03-31T11:11:54Z</time></trkpt><trkpt lat="42.18940315629097" lon="-1.3930955776607836"><ele>375.3333333333333</ele><time>2026-03-31T11:11:55Z</time></trkpt><trkpt lat="42.1895498628073" lon="-1.3930149738984567"><ele>375.0</ele><time>2026-03-31T11:11:56Z</time></trkpt><trkpt lat="42.18968988321963" lon="-1.39296621481951"><ele>374.6666666666667</ele><time>2026-03-31T11:11:57Z</time></trkpt><trkpt lat="42.1898349247104" lon="-1.3929198430743166"><ele>374.33333333333337</ele><time>2026-03-31T11:11:58Z</time></trkpt><trkpt lat="42.1899871472831" lon="-1.392882786085655"><ele>374.0</ele><time>2026-03-31T11:11:59Z</time></trkpt><trkpt lat="42.19014108760188" lon="-1.3928807986618037"><ele>374.0</ele><time>2026-03-31T11:12:00Z</time></trkpt><trkpt lat="42.19027831768775" lon="-1.3927425217213636"><ele>374.0</ele><time>2026-03-31T11:12:01Z</time></trkpt><trkpt lat="42.1904277206792" lon="-1.3926949932587023"><ele>374.0</ele><time>2026-03-31T11:12:02Z</time></trkpt><trkpt lat="42.190583218750824" lon="-1.3926246545375276"><ele>374.6666666666667</ele><time>2026-03-31T11:12:03Z</time></trkpt><trkpt lat="42.19074301227647" lon="-1.3925668774281812"><ele>375.3333333333333</ele><time>2026-03-31T11:12:04Z</time></trkpt><trkpt lat="42.19091037787687" lon="-1.3924974026483194"><ele>376.0</ele><time>2026-03-31T11:12:05Z</time></trkpt><trkpt lat="42.19107298468511" lon="-1.392442410139369"><ele>376.0</ele><time>2026-03-31T11:12:06Z</time></trkpt><trkpt lat="42.19124179788549" lon="-1.392379512501917"><ele>376.0</ele><time>2026-03-31T11:12:07Z</time></trkpt><trkpt lat="42.19140668349957" lon="-1.3923088245385968"><ele>376.0</ele><time>2026-03-31T11:12:08Z</time></trkpt><trkpt lat="42.19156568473587" lon="-1.3922440408166943"><ele>376.66666666666663</ele><time>2026-03-31T11:12:09Z</time></trkpt><trkpt lat="42.19173085719599" lon="-1.3921920634290197"><ele>377.3333333333333</ele><time>2026-03-31T11:12:10Z</time></trkpt><trkpt lat="42.19189211312763" lon="-1.392138609886087"><ele>378.0</ele><time>2026-03-31T11:12:11Z</time></trkpt><trkpt lat="42.1920562156885" lon="-1.3920741474329932"><ele>378.0</ele><time>2026-03-31T11:12:12Z</time></trkpt><trkpt lat="42.19222272294451" lon="-1.3920014539871977"><ele>378.0</ele><time>2026-03-31T11:12:13Z</time></trkpt><trkpt lat="42.19238126307671" lon="-1.3919298373043143"><ele>378.0</ele><time>2026-03-31T11:12:14Z</time></trkpt><trkpt lat="42.192537345974976" lon="-1.3918741302550206"><ele>378.0</ele><time>2026-03-31T11:12:15Z</time></trkpt><trkpt lat="42.192697138166466" lon="-1.391821384299247"><ele>378.0</ele><time>2026-03-31T11:12:16Z</time></trkpt><trkpt lat="42.19288472962654" lon="-1.3917635923333138"><ele>378.0</ele><time>2026-03-31T11:12:17Z</time></trkpt><trkpt lat="42.19309491558355" lon="-1.3916898096574835"><ele>379.0</ele><time>2026-03-31T11:12:18Z</time></trkpt><trkpt lat="42.193305370616535" lon="-1.3916094553620382"><ele>380.0</ele><time>2026-03-31T11:12:19Z</time></trkpt><trkpt lat="42.1935320236007" lon="-1.3915284065673317"><ele>380.0</ele><time>2026-03-31T11:12:20Z</time></trkpt><trkpt lat="42.193767821202535" lon="-1.3914415990464954"><ele>380.0</ele><time>2026-03-31T11:12:21Z</time></trkpt><trkpt lat="42.19398135756709" lon="-1.3913596405856692"><ele>382.0</ele><time>2026-03-31T11:12:22Z</time></trkpt><trkpt lat="42.19417215589572" lon="-1.3912891982163396"><ele>384.0</ele><time>2026-03-31T11:12:23Z</time></trkpt><trkpt lat="42.19434524666302" lon="-1.3912217039029917"><ele>386.0</ele><time>2026-03-31T11:12:24Z</time></trkpt><trkpt lat="42.19448673369803" lon="-1.3911633601384545"><ele>386.0</ele><time>2026-03-31T11:12:25Z</time></trkpt><trkpt lat="42.194596632127684" lon="-1.3911113184753763"><ele>386.0</ele><time>2026-03-31T11:12:26Z</time></trkpt><trkpt lat="42.194694916255536" lon="-1.39104311645325"><ele>386.0</ele><time>2026-03-31T11:12:27Z</time></trkpt><trkpt lat="42.19478653869152" lon="-1.3909557401884691"><ele>386.0</ele><time>2026-03-31T11:12:28Z</time></trkpt><trkpt lat="42.19486363124091" lon="-1.390842507560666"><ele>385.75</ele><time>2026-03-31T11:12:29Z</time></trkpt><trkpt lat="42.19492287333564" lon="-1.3907078659475618"><ele>385.5</ele><time>2026-03-31T11:12:30Z</time></trkpt><trkpt lat="42.19493750326221" lon="-1.3905393710274325"><ele>385.25</ele><time>2026-03-31T11:12:31Z</time></trkpt><trkpt lat="42.19495261160434" lon="-1.3903666245563853"><ele>385.0</ele><time>2026-03-31T11:12:32Z</time></trkpt><trkpt lat="42.194919350519136" lon="-1.3901909515705149"><ele>385.0</ele><time>2026-03-31T11:12:33Z</time></trkpt><trkpt lat="42.194849642480634" lon="-1.3900137394378542"><ele>385.0</ele><time>2026-03-31T11:12:34Z</time></trkpt><trkpt lat="42.194764458441995" lon="-1.389856437965704"><ele>385.0</ele><time>2026-03-31T11:12:35Z</time></trkpt><trkpt lat="42.194674849916545" lon="-1.389720179672699"><ele>385.0</ele><time>2026-03-31T11:12:36Z</time></trkpt><trkpt lat="42.194585177559674" lon="-1.3896141668874984"><ele>385.00000000000006</ele><time>2026-03-31T11:12:37Z</time></trkpt><trkpt lat="42.19452813134733" lon="-1.3894961039992377"><ele>385.0</ele><time>2026-03-31T11:12:38Z</time></trkpt><trkpt lat="42.19446598384984" lon="-1.3894016085756915"><ele>385.0</ele><time>2026-03-31T11:12:39Z</time></trkpt><trkpt lat="42.194420638505164" lon="-1.389323343870062"><ele>385.0</ele><time>2026-03-31T11:12:40Z</time></trkpt><trkpt lat="42.19435157944367" lon="-1.3892615983260066"><ele>385.00000000000006</ele><time>2026-03-31T11:12:42Z</time></trkpt><trkpt lat="42.19429443274652" lon="-1.3892076088193164"><ele>385.0</ele><time>2026-03-31T11:13:07Z</time></trkpt><trkpt lat="42.194235360889394" lon="-1.3891023590751945"><ele>385.0</ele><time>2026-03-31T11:14:10Z</time></trkpt><trkpt lat="42.1941140823704" lon="-1.389080215124289"><ele>385.0</ele><time>2026-03-31T11:14:12Z</time></trkpt><trkpt lat="42.194077791552864" lon="-1.389174352607907"><ele>385.0</ele><time>2026-03-31T11:14:13Z</time></trkpt><trkpt lat="42.194111099096546" lon="-1.3893066126280462"><ele>385.0</ele><time>2026-03-31T11:14:14Z</time></trkpt><trkpt lat="42.194045156621804" lon="-1.3893569790112696"><ele>385.0</ele><time>2026-03-31T11:14:15Z</time></trkpt><trkpt lat="42.19396830012844" lon="-1.3894072563895608"><ele>385.4</ele><time>2026-03-31T11:14:16Z</time></trkpt><trkpt lat="42.193886879851306" lon="-1.3894510458171865"><ele>385.8</ele><time>2026-03-31T11:14:17Z</time></trkpt><trkpt lat="42.193794625906314" lon="-1.3894894006153082"><ele>386.20000000000005</ele><time>2026-03-31T11:14:18Z</time></trkpt><trkpt lat="42.19369605573144" lon="-1.3895201235860712"><ele>386.6</ele><time>2026-03-31T11:14:19Z</time></trkpt><trkpt lat="42.19359383857052" lon="-1.389547297852318"><ele>387.0</ele><time>2026-03-31T11:14:20Z</time></trkpt><trkpt lat="42.1934940898121" lon="-1.3895729727302712"><ele>387.0</ele><time>2026-03-31T11:14:21Z</time></trkpt><trkpt lat="42.19339397787015" lon="-1.3895993902910977"><ele>387.0</ele><time>2026-03-31T11:14:22Z</time></trkpt><trkpt lat="42.19328275646113" lon="-1.38963140331409"><ele>387.0</ele><time>2026-03-31T11:14:23Z</time></trkpt><trkpt lat="42.19316610426901" lon="-1.3896649794991272"><ele>387.0</ele><time>2026-03-31T11:14:24Z</time></trkpt><trkpt lat="42.19304749303244" lon="-1.3896991195595392"><ele>386.25</ele><time>2026-03-31T11:14:25Z</time></trkpt><trkpt lat="42.19291530270562" lon="-1.3897371680868735"><ele>385.5</ele><time>2026-03-31T11:14:26Z</time></trkpt><trkpt lat="42.19277796234815" lon="-1.3897724175757618"><ele>384.75</ele><time>2026-03-31T11:14:27Z</time></trkpt><trkpt lat="42.1926650704262" lon="-1.3898040649367733"><ele>384.0</ele><time>2026-03-31T11:14:28Z</time></trkpt><trkpt lat="42.1925664521796" lon="-1.3898408936813973"><ele>384.0</ele><time>2026-03-31T11:14:29Z</time></trkpt><trkpt lat="42.192478440476776" lon="-1.3898682802013227"><ele>384.0</ele><time>2026-03-31T11:14:30Z</time></trkpt><trkpt lat="42.19241580321755" lon="-1.3898843818891762"><ele>384.0</ele><time>2026-03-31T11:14:31Z</time></trkpt><trkpt lat="42.19229815169751" lon="-1.3898874957018958"><ele>384.0</ele><time>2026-03-31T11:14:33Z</time></trkpt><trkpt lat="42.19222813691932" lon="-1.3898161907015525"><ele>384.0</ele><time>2026-03-31T11:14:34Z</time></trkpt><trkpt lat="42.192172203642905" lon="-1.3897514265450432"><ele>384.0</ele><time>2026-03-31T11:14:35Z</time></trkpt><trkpt lat="42.192139418391896" lon="-1.3895697058931886"><ele>384.0</ele><time>2026-03-31T11:14:36Z</time></trkpt><trkpt lat="42.19204564231894" lon="-1.3894512586718832"><ele>384.0</ele><time>2026-03-31T11:14:37Z</time></trkpt><trkpt lat="42.19194084763354" lon="-1.3893041870941611"><ele>384.0</ele><time>2026-03-31T11:14:38Z</time></trkpt><trkpt lat="42.191819869562494" lon="-1.3891482561434254"><ele>384.0</ele><time>2026-03-31T11:14:39Z</time></trkpt><trkpt lat="42.19168878961251" lon="-1.3889711181125601"><ele>383.3333333333333</ele><time>2026-03-31T11:14:40Z</time></trkpt><trkpt lat="42.191559579771685" lon="-1.388764319672439"><ele>382.66666666666663</ele><time>2026-03-31T11:14:41Z</time></trkpt><trkpt lat="42.19142173471334" lon="-1.38857768613315"><ele>382.0</ele><time>2026-03-31T11:14:42Z</time></trkpt><trkpt lat="42.19129284512075" lon="-1.388406206158655"><ele>381.66666666666663</ele><time>2026-03-31T11:14:43Z</time></trkpt><trkpt lat="42.19116570968675" lon="-1.3882427869727776"><ele>381.3333333333333</ele><time>2026-03-31T11:14:44Z</time></trkpt><trkpt lat="42.191028829482285" lon="-1.3881127649595357"><ele>381.0</ele><time>2026-03-31T11:14:45Z</time></trkpt><trkpt lat="42.19089295084842" lon="-1.387997122534433"><ele>380.6666666666667</ele><time>2026-03-31T11:14:46Z</time></trkpt><trkpt lat="42.190741443182645" lon="-1.3878935554620087"><ele>380.33333333333337</ele><time>2026-03-31T11:14:47Z</time></trkpt><trkpt lat="42.19058420718908" lon="-1.387781449482598"><ele>380.0</ele><time>2026-03-31T11:14:48Z</time></trkpt><trkpt lat="42.19042327869264" lon="-1.387645473261635"><ele>380.0</ele><time>2026-03-31T11:14:49Z</time></trkpt><trkpt lat="42.19025075815119" lon="-1.3875323203915693"><ele>380.0</ele><time>2026-03-31T11:14:50Z</time></trkpt><trkpt lat="42.1900797086377" lon="-1.3873996927098915"><ele>380.0</ele><time>2026-03-31T11:14:51Z</time></trkpt><trkpt lat="42.18990676778991" lon="-1.3872591920770154"><ele>380.0</ele><time>2026-03-31T11:14:52Z</time></trkpt><trkpt lat="42.1897283008912" lon="-1.3871210720781892"><ele>380.0</ele><time>2026-03-31T11:14:53Z</time></trkpt><trkpt lat="42.18954795388001" lon="-1.3869979418756213"><ele>380.0</ele><time>2026-03-31T11:14:54Z</time></trkpt><trkpt lat="42.18935607834142" lon="-1.3868783090521528"><ele>380.0</ele><time>2026-03-31T11:14:55Z</time></trkpt><trkpt lat="42.18917197438514" lon="-1.3867424486681692"><ele>380.0</ele><time>2026-03-31T11:14:56Z</time></trkpt><trkpt lat="42.188993598292555" lon="-1.386608447237223"><ele>380.0</ele><time>2026-03-31T11:14:57Z</time></trkpt><trkpt lat="42.18882539015019" lon="-1.3864882013693915"><ele>379.33333333333337</ele><time>2026-03-31T11:14:58Z</time></trkpt><trkpt lat="42.188654432629" lon="-1.386397473018712"><ele>378.6666666666667</ele><time>2026-03-31T11:14:59Z</time></trkpt><trkpt lat="42.188505639314954" lon="-1.3862632612708057"><ele>378.0</ele><time>2026-03-31T11:15:00Z</time></trkpt><trkpt lat="42.18835549793717" lon="-1.3861520052867107"><ele>378.0</ele><time>2026-03-31T11:15:01Z</time></trkpt><trkpt lat="42.18820327305731" lon="-1.386064154165463"><ele>378.0</ele><time>2026-03-31T11:15:02Z</time></trkpt><trkpt lat="42.18805923264255" lon="-1.3859582685475864"><ele>378.0</ele><time>2026-03-31T11:15:03Z</time></trkpt><trkpt lat="42.18791489657463" lon="-1.3858521655155158"><ele>377.3333333333333</ele><time>2026-03-31T11:15:04Z</time></trkpt><trkpt lat="42.18777730869327" lon="-1.3857274393202468"><ele>376.66666666666663</ele><time>2026-03-31T11:15:05Z</time></trkpt><trkpt lat="42.18762576181858" lon="-1.3856171840262335"><ele>376.0</ele><time>2026-03-31T11:15:06Z</time></trkpt><trkpt lat="42.18746212958693" lon="-1.385519494474339"><ele>375.3333333333333</ele><time>2026-03-31T11:15:07Z</time></trkpt><trkpt lat="42.18730130819827" lon="-1.3854047303041315"><ele>374.6666666666667</ele><time>2026-03-31T11:15:08Z</time></trkpt><trkpt lat="42.187146220664914" lon="-1.385271912526112"><ele>374.0</ele><time>2026-03-31T11:15:09Z</time></trkpt><trkpt lat="42.18699082414159" lon="-1.3851632783998011"><ele>374.0</ele><time>2026-03-31T11:15:10Z</time></trkpt><trkpt lat="42.18685737153531" lon="-1.3850721800760226"><ele>374.0</ele><time>2026-03-31T11:15:11Z</time></trkpt><trkpt lat="42.18672966983427" lon="-1.3849920523860577"><ele>374.0</ele><time>2026-03-31T11:15:12Z</time></trkpt><trkpt lat="42.18661633492716" lon="-1.3849170314166863"><ele>374.0</ele><time>2026-03-31T11:15:13Z</time></trkpt><trkpt lat="42.18651951288109" lon="-1.384814608154117"><ele>373.5</ele><time>2026-03-31T11:15:14Z</time></trkpt><trkpt lat="42.186445480122025" lon="-1.3846681925964393"><ele>373.0</ele><time>2026-03-31T11:15:15Z</time></trkpt><trkpt lat="42.18640911208581" lon="-1.3844821957782998"><ele>372.5</ele><time>2026-03-31T11:15:16Z</time></trkpt><trkpt lat="42.18635883886833" lon="-1.3842905970103763"><ele>372.0</ele><time>2026-03-31T11:15:17Z</time></trkpt><trkpt lat="42.186333670533855" lon="-1.3840705866798775"><ele>372.0</ele><time>2026-03-31T11:15:18Z</time></trkpt><trkpt lat="42.18629931684975" lon="-1.383841528856337"><ele>372.0</ele><time>2026-03-31T11:15:19Z</time></trkpt><trkpt lat="42.18625180588626" lon="-1.3836126833157445"><ele>372.0</ele><time>2026-03-31T11:15:20Z</time></trkpt><trkpt lat="42.186201378588976" lon="-1.3833829755932203"><ele>372.0</ele><time>2026-03-31T11:15:21Z</time></trkpt><trkpt lat="42.18614827361827" lon="-1.3831433092398984"><ele>372.0</ele><time>2026-03-31T11:15:22Z</time></trkpt><trkpt lat="42.18609833945603" lon="-1.3828920943017957"><ele>372.0</ele><time>2026-03-31T11:15:23Z</time></trkpt><trkpt lat="42.18605295020941" lon="-1.3826440973446348"><ele>372.0</ele><time>2026-03-31T11:15:24Z</time></trkpt><trkpt lat="42.18600520710755" lon="-1.3823902973627875"><ele>372.0</ele><time>2026-03-31T11:15:25Z</time></trkpt><trkpt lat="42.18595127124" lon="-1.3821463838598094"><ele>372.0</ele><time>2026-03-31T11:15:26Z</time></trkpt><trkpt lat="42.185902280335334" lon="-1.3819059981533832"><ele>372.0</ele><time>2026-03-31T11:15:27Z</time></trkpt><trkpt lat="42.18585830986854" lon="-1.3816765728096234"><ele>372.0</ele><time>2026-03-31T11:15:28Z</time></trkpt><trkpt lat="42.18581050792066" lon="-1.3814648780481553"><ele>372.0</ele><time>2026-03-31T11:15:29Z</time></trkpt><trkpt lat="42.185760284554625" lon="-1.3812468616969367"><ele>371.3333333333333</ele><time>2026-03-31T11:15:30Z</time></trkpt><trkpt lat="42.18572000826681" lon="-1.3810247939995821"><ele>370.66666666666663</ele><time>2026-03-31T11:15:31Z</time></trkpt><trkpt lat="42.185679229304895" lon="-1.3808021795555736"><ele>370.0</ele><time>2026-03-31T11:15:32Z</time></trkpt><trkpt lat="42.185631751479924" lon="-1.3805590422666534"><ele>369.0</ele><time>2026-03-31T11:15:33Z</time></trkpt><trkpt lat="42.18557173857444" lon="-1.3802955777237333"><ele>368.0</ele><time>2026-03-31T11:15:34Z</time></trkpt><trkpt lat="42.18554641211244" lon="-1.380115515842896"><ele>367.0</ele><time>2026-03-31T11:15:35Z</time></trkpt><trkpt lat="42.18549755415737" lon="-1.3798984629479432"><ele>367.0</ele><time>2026-03-31T11:15:36Z</time></trkpt><trkpt lat="42.18542368631895" lon="-1.379685989561071"><ele>367.0</ele><time>2026-03-31T11:15:37Z</time></trkpt><trkpt lat="42.18534248658139" lon="-1.3794795301992278"><ele>367.0</ele><time>2026-03-31T11:15:38Z</time></trkpt><trkpt lat="42.185248065465274" lon="-1.379278128054226"><ele>367.0</ele><time>2026-03-31T11:15:39Z</time></trkpt><trkpt lat="42.18515367316796" lon="-1.3790817445327415"><ele>367.0</ele><time>2026-03-31T11:15:40Z</time></trkpt><trkpt lat="42.18506679464311" lon="-1.3788747741477523"><ele>367.0</ele><time>2026-03-31T11:15:41Z</time></trkpt><trkpt lat="42.18498053772406" lon="-1.3786970434288157"><ele>367.0</ele><time>2026-03-31T11:15:42Z</time></trkpt><trkpt lat="42.1848803506414" lon="-1.3784928525273878"><ele>367.0</ele><time>2026-03-31T11:15:43Z</time></trkpt><trkpt lat="42.184789723685306" lon="-1.3782959295719075"><ele>367.0</ele><time>2026-03-31T11:15:44Z</time></trkpt><trkpt lat="42.18468959722883" lon="-1.3781062063965261"><ele>366.66666666666663</ele><time>2026-03-31T11:15:45Z</time></trkpt><trkpt lat="42.184602797803805" lon="-1.3779172075892776"><ele>366.3333333333333</ele><time>2026-03-31T11:15:46Z</time></trkpt><trkpt lat="42.18452206284108" lon="-1.377741413582111"><ele>366.0</ele><time>2026-03-31T11:15:47Z</time></trkpt><trkpt lat="42.18445442194282" lon="-1.3775701931205646"><ele>366.0</ele><time>2026-03-31T11:15:48Z</time></trkpt><trkpt lat="42.18437770923977" lon="-1.3774281245171434"><ele>366.0</ele><time>2026-03-31T11:15:49Z</time></trkpt><trkpt lat="42.18431708386979" lon="-1.377310037192528"><ele>366.0</ele><time>2026-03-31T11:15:50Z</time></trkpt><trkpt lat="42.184268140641755" lon="-1.3772164779376364"><ele>366.0</ele><time>2026-03-31T11:15:51Z</time></trkpt><trkpt lat="42.184218822061354" lon="-1.3771584340145893"><ele>366.0</ele><time>2026-03-31T11:15:52Z</time></trkpt><trkpt lat="42.18424130678392" lon="-1.3770136680807386"><ele>366.0</ele><time>2026-03-31T11:15:53Z</time></trkpt><trkpt lat="42.18420728786867" lon="-1.376863116867073"><ele>366.0</ele><time>2026-03-31T11:15:54Z</time></trkpt><trkpt lat="42.18415661362583" lon="-1.3767237455200363"><ele>366.0</ele><time>2026-03-31T11:15:55Z</time></trkpt><trkpt lat="42.184071431481705" lon="-1.3765467289497373"><ele>366.0</ele><time>2026-03-31T11:15:56Z</time></trkpt><trkpt lat="42.18399348805252" lon="-1.376325625756126"><ele>366.3333333333333</ele><time>2026-03-31T11:15:57Z</time></trkpt><trkpt lat="42.1839374845147" lon="-1.3760514614975823"><ele>366.66666666666663</ele><time>2026-03-31T11:15:58Z</time></trkpt><trkpt lat="42.18387130115955" lon="-1.3757648952469628"><ele>367.0</ele><time>2026-03-31T11:15:59Z</time></trkpt><trkpt lat="42.183807071635655" lon="-1.375469448393712"><ele>366.0</ele><time>2026-03-31T11:16:00Z</time></trkpt><trkpt lat="42.183744644556135" lon="-1.3751864639503173"><ele>365.0</ele><time>2026-03-31T11:16:01Z</time></trkpt><trkpt lat="42.18369297036229" lon="-1.3749531335825422"><ele>364.0</ele><time>2026-03-31T11:16:02Z</time></trkpt><trkpt lat="42.183642044430684" lon="-1.3747327839737342"><ele>363.75</ele><time>2026-03-31T11:16:03Z</time></trkpt><trkpt lat="42.18359535119263" lon="-1.3745387048578708"><ele>363.5</ele><time>2026-03-31T11:16:04Z</time></trkpt><trkpt lat="42.18356691262471" lon="-1.3743514932198513"><ele>363.25</ele><time>2026-03-31T11:16:05Z</time></trkpt><trkpt lat="42.18356483483174" lon="-1.374161093232857"><ele>363.0</ele><time>2026-03-31T11:16:06Z</time></trkpt><trkpt lat="42.1835873785023" lon="-1.373954965543282"><ele>362.6666666666667</ele><time>2026-03-31T11:16:07Z</time></trkpt><trkpt lat="42.1836262482032" lon="-1.37374356397793"><ele>362.33333333333337</ele><time>2026-03-31T11:16:08Z</time></trkpt><trkpt lat="42.18367657433203" lon="-1.3735291251642467"><ele>362.0</ele><time>2026-03-31T11:16:09Z</time></trkpt><trkpt lat="42.18373390169261" lon="-1.3732994197719495"><ele>362.0</ele><time>2026-03-31T11:16:10Z</time></trkpt><trkpt lat="42.18379167691459" lon="-1.3730299445183254"><ele>362.0</ele><time>2026-03-31T11:16:11Z</time></trkpt><trkpt lat="42.18385519140178" lon="-1.3727247977820094"><ele>362.0</ele><time>2026-03-31T11:16:12Z</time></trkpt><trkpt lat="42.18391656276124" lon="-1.3724363517922031"><ele>361.6666666666667</ele><time>2026-03-31T11:16:13Z</time></trkpt><trkpt lat="42.183975628531066" lon="-1.372165624888687"><ele>361.3333333333333</ele><time>2026-03-31T11:16:14Z</time></trkpt><trkpt lat="42.1840330548157" lon="-1.3719024408572484"><ele>361.0</ele><time>2026-03-31T11:16:15Z</time></trkpt><trkpt lat="42.18408620386514" lon="-1.3716448978075644"><ele>360.66666666666663</ele><time>2026-03-31T11:16:16Z</time></trkpt><trkpt lat="42.184142279860495" lon="-1.3713884624311115"><ele>360.3333333333333</ele><time>2026-03-31T11:16:17Z</time></trkpt><trkpt lat="42.184202947334924" lon="-1.3711227150015872"><ele>360.0</ele><time>2026-03-31T11:16:18Z</time></trkpt><trkpt lat="42.1842560145773" lon="-1.370865214747824"><ele>360.0</ele><time>2026-03-31T11:16:19Z</time></trkpt><trkpt lat="42.184306671240364" lon="-1.3706154891939393"><ele>360.0</ele><time>2026-03-31T11:16:20Z</time></trkpt><trkpt lat="42.18435734896272" lon="-1.3703777696388193"><ele>360.0</ele><time>2026-03-31T11:16:21Z</time></trkpt><trkpt lat="42.184406609964974" lon="-1.3701521056623918"><ele>360.0</ele><time>2026-03-31T11:16:22Z</time></trkpt><trkpt lat="42.184451919403955" lon="-1.3699302225549013"><ele>360.0</ele><time>2026-03-31T11:16:23Z</time></trkpt><trkpt lat="42.18448830104497" lon="-1.3696917217746756"><ele>360.0</ele><time>2026-03-31T11:16:24Z</time></trkpt><trkpt lat="42.184531972924844" lon="-1.3694378123085782"><ele>359.6666666666667</ele><time>2026-03-31T11:16:25Z</time></trkpt><trkpt lat="42.18457992929193" lon="-1.3691704087641345"><ele>359.33333333333337</ele><time>2026-03-31T11:16:26Z</time></trkpt><trkpt lat="42.184613628182845" lon="-1.368932887231016"><ele>359.0</ele><time>2026-03-31T11:16:27Z</time></trkpt><trkpt lat="42.18463412906056" lon="-1.368712442348926"><ele>358.5</ele><time>2026-03-31T11:16:28Z</time></trkpt><trkpt lat="42.184642828283806" lon="-1.3685146930725915"><ele>358.0</ele><time>2026-03-31T11:16:29Z</time></trkpt><trkpt lat="42.18464925601356" lon="-1.368338463403531"><ele>357.5</ele><time>2026-03-31T11:16:30Z</time></trkpt><trkpt lat="42.18461248631131" lon="-1.368163825872981"><ele>357.0</ele><time>2026-03-31T11:16:31Z</time></trkpt><trkpt lat="42.18457420416736" lon="-1.3679435902197257"><ele>357.0</ele><time>2026-03-31T11:16:32Z</time></trkpt><trkpt lat="42.184533633731846" lon="-1.3676986910039601"><ele>357.0</ele><time>2026-03-31T11:16:33Z</time></trkpt><trkpt lat="42.1845096506682" lon="-1.367438937913514"><ele>357.0</ele><time>2026-03-31T11:16:34Z</time></trkpt><trkpt lat="42.184464053747746" lon="-1.36719448787432"><ele>356.6666666666667</ele><time>2026-03-31T11:16:35Z</time></trkpt><trkpt lat="42.18442590920076" lon="-1.366979427740248"><ele>356.33333333333337</ele><time>2026-03-31T11:16:36Z</time></trkpt><trkpt lat="42.18439301493786" lon="-1.3667758369049063"><ele>356.0</ele><time>2026-03-31T11:16:37Z</time></trkpt><trkpt lat="42.18436612976523" lon="-1.3665845780464803"><ele>356.0</ele><time>2026-03-31T11:16:38Z</time></trkpt><trkpt lat="42.18434163340231" lon="-1.366404139919051"><ele>356.0</ele><time>2026-03-31T11:16:39Z</time></trkpt><trkpt lat="42.18431784410563" lon="-1.3662354178751825"><ele>356.0</ele><time>2026-03-31T11:16:40Z</time></trkpt><trkpt lat="42.184290989041926" lon="-1.366066876597521"><ele>356.0</ele><time>2026-03-31T11:16:41Z</time></trkpt><trkpt lat="42.18425346252616" lon="-1.3658886315448324"><ele>356.0</ele><time>2026-03-31T11:16:42Z</time></trkpt><trkpt lat="42.18419022746052" lon="-1.3657084148953396"><ele>356.0</ele><time>2026-03-31T11:16:43Z</time></trkpt><trkpt lat="42.18409204388948" lon="-1.3655372237144245"><ele>356.0</ele><time>2026-03-31T11:16:44Z</time></trkpt><trkpt lat="42.184009427938356" lon="-1.3653192697997336"><ele>356.0</ele><time>2026-03-31T11:16:45Z</time></trkpt><trkpt lat="42.18390559765977" lon="-1.3651018008947027"><ele>356.0</ele><time>2026-03-31T11:16:46Z</time></trkpt><trkpt lat="42.183799457528956" lon="-1.3648687577293361"><ele>356.0</ele><time>2026-03-31T11:16:47Z</time></trkpt><trkpt lat="42.18368644424629" lon="-1.3646134328939634"><ele>355.33333333333337</ele><time>2026-03-31T11:16:48Z</time></trkpt><trkpt lat="42.18357695042116" lon="-1.364370192113712"><ele>354.6666666666667</ele><time>2026-03-31T11:16:49Z</time></trkpt><trkpt lat="42.183476670541424" lon="-1.3641452375278946"><ele>354.0</ele><time>2026-03-31T11:16:50Z</time></trkpt><trkpt lat="42.183382193372815" lon="-1.3639354176438283"><ele>354.0</ele><time>2026-03-31T11:16:51Z</time></trkpt><trkpt lat="42.18328840074244" lon="-1.363731764056151"><ele>354.0</ele><time>2026-03-31T11:16:52Z</time></trkpt><trkpt lat="42.183211423332935" lon="-1.3635525199864653"><ele>354.0</ele><time>2026-03-31T11:16:53Z</time></trkpt><trkpt lat="42.18314555255511" lon="-1.3633943587287005"><ele>353.75</ele><time>2026-03-31T11:16:54Z</time></trkpt><trkpt lat="42.18309094817115" lon="-1.3632595275417498"><ele>353.5</ele><time>2026-03-31T11:16:55Z</time></trkpt><trkpt lat="42.18302188530714" lon="-1.3631469653094521"><ele>353.25</ele><time>2026-03-31T11:16:56Z</time></trkpt><trkpt lat="42.18307284529793" lon="-1.3629302083962738"><ele>353.0</ele><time>2026-03-31T11:16:57Z</time></trkpt><trkpt lat="42.18309066145287" lon="-1.362726201067602"><ele>352.75</ele><time>2026-03-31T11:16:58Z</time></trkpt><trkpt lat="42.18313251641187" lon="-1.3625143302043055"><ele>352.5</ele><time>2026-03-31T11:16:59Z</time></trkpt><trkpt lat="42.183193938006724" lon="-1.3623342634953088"><ele>352.25</ele><time>2026-03-31T11:17:00Z</time></trkpt><trkpt lat="42.183290557011375" lon="-1.3622126034534716"><ele>352.0</ele><time>2026-03-31T11:17:01Z</time></trkpt><trkpt lat="42.183361222759466" lon="-1.3620363713685264"><ele>352.0</ele><time>2026-03-31T11:17:02Z</time></trkpt><trkpt lat="42.18345199720408" lon="-1.3618291044411321"><ele>352.0</ele><time>2026-03-31T11:17:03Z</time></trkpt><trkpt lat="42.18349143577928" lon="-1.3615977139028077"><ele>352.0</ele><time>2026-03-31T11:17:04Z</time></trkpt><trkpt lat="42.18353911570799" lon="-1.3613746559554234"><ele>350.66666666666663</ele><time>2026-03-31T11:17:05Z</time></trkpt><trkpt lat="42.18355989458195" lon="-1.3611388917369303"><ele>349.3333333333333</ele><time>2026-03-31T11:17:06Z</time></trkpt><trkpt lat="42.18359455097449" lon="-1.3609041935398902"><ele>348.0</ele><time>2026-03-31T11:17:07Z</time></trkpt><trkpt lat="42.18365005769626" lon="-1.3606773772543834"><ele>347.6666666666667</ele><time>2026-03-31T11:17:08Z</time></trkpt><trkpt lat="42.183713684392124" lon="-1.3604548418450537"><ele>347.33333333333337</ele><time>2026-03-31T11:17:09Z</time></trkpt><trkpt lat="42.18379062364328" lon="-1.3602472203642553"><ele>347.0</ele><time>2026-03-31T11:17:10Z</time></trkpt><trkpt lat="42.18388561714965" lon="-1.360043399147127"><ele>347.0</ele><time>2026-03-31T11:17:11Z</time></trkpt><trkpt lat="42.18399765210505" lon="-1.3598516169629726"><ele>347.0</ele><time>2026-03-31T11:17:12Z</time></trkpt><trkpt lat="42.18411722371023" lon="-1.3596712497332755"><ele>347.0</ele><time>2026-03-31T11:17:13Z</time></trkpt><trkpt lat="42.18424261158377" lon="-1.359489659347432"><ele>347.33333333333337</ele><time>2026-03-31T11:17:14Z</time></trkpt><trkpt lat="42.18436558774923" lon="-1.3593107408673721"><ele>347.6666666666667</ele><time>2026-03-31T11:17:15Z</time></trkpt><trkpt lat="42.18448866286337" lon="-1.359112807226853"><ele>348.0</ele><time>2026-03-31T11:17:16Z</time></trkpt><trkpt lat="42.18460435376869" lon="-1.3589110855522855"><ele>347.6666666666667</ele><time>2026-03-31T11:17:17Z</time></trkpt><trkpt lat="42.1847170363565" lon="-1.3586846694410377"><ele>347.33333333333337</ele><time>2026-03-31T11:17:18Z</time></trkpt><trkpt lat="42.184818211843286" lon="-1.358472837906135"><ele>347.0</ele><time>2026-03-31T11:17:19Z</time></trkpt><trkpt lat="42.184918832703865" lon="-1.3582464276823"><ele>347.0</ele><time>2026-03-31T11:17:20Z</time></trkpt><trkpt lat="42.18502236140377" lon="-1.3580229000507067"><ele>347.0</ele><time>2026-03-31T11:17:21Z</time></trkpt><trkpt lat="42.18512436877774" lon="-1.357800317306369"><ele>347.0</ele><time>2026-03-31T11:17:22Z</time></trkpt><trkpt lat="42.18523210367712" lon="-1.3575800581575024"><ele>347.0</ele><time>2026-03-31T11:17:23Z</time></trkpt><trkpt lat="42.185349312934676" lon="-1.3573378707555177"><ele>347.0</ele><time>2026-03-31T11:17:24Z</time></trkpt><trkpt lat="42.185467320219935" lon="-1.3570827526870055"><ele>347.0</ele><time>2026-03-31T11:17:25Z</time></trkpt><trkpt lat="42.185581014067886" lon="-1.356825583701505"><ele>346.6666666666667</ele><time>2026-03-31T11:17:26Z</time></trkpt><trkpt lat="42.185695775534086" lon="-1.3565681099926445"><ele>346.3333333333333</ele><time>2026-03-31T11:17:27Z</time></trkpt><trkpt lat="42.18581350091686" lon="-1.3563193546527974"><ele>346.0</ele><time>2026-03-31T11:17:28Z</time></trkpt><trkpt lat="42.18593321832828" lon="-1.3560771403336083"><ele>345.3333333333333</ele><time>2026-03-31T11:17:29Z</time></trkpt><trkpt lat="42.186049886435654" lon="-1.355832766078444"><ele>344.6666666666667</ele><time>2026-03-31T11:17:30Z</time></trkpt><trkpt lat="42.186159109869884" lon="-1.3555861035307997"><ele>344.0</ele><time>2026-03-31T11:17:31Z</time></trkpt><trkpt lat="42.18627761625143" lon="-1.3553319428507284"><ele>344.0</ele><time>2026-03-31T11:17:32Z</time></trkpt><trkpt lat="42.186382572392525" lon="-1.355084155276937"><ele>344.0</ele><time>2026-03-31T11:17:33Z</time></trkpt><trkpt lat="42.18650136987238" lon="-1.354839634929169"><ele>344.0</ele><time>2026-03-31T11:17:34Z</time></trkpt><trkpt lat="42.18661012976555" lon="-1.3546037596319243"><ele>343.6666666666667</ele><time>2026-03-31T11:17:35Z</time></trkpt><trkpt lat="42.1867211974604" lon="-1.3543617704106459"><ele>343.3333333333333</ele><time>2026-03-31T11:17:36Z</time></trkpt><trkpt lat="42.18683463593609" lon="-1.35412532174477"><ele>343.0</ele><time>2026-03-31T11:17:37Z</time></trkpt><trkpt lat="42.18695736889692" lon="-1.3539067481628564"><ele>343.0</ele><time>2026-03-31T11:17:38Z</time></trkpt><trkpt lat="42.187051855903256" lon="-1.3536868443565848"><ele>343.0</ele><time>2026-03-31T11:17:39Z</time></trkpt><trkpt lat="42.187144114876745" lon="-1.3534660067299957"><ele>343.0</ele><time>2026-03-31T11:17:40Z</time></trkpt><trkpt lat="42.187235229325445" lon="-1.3532433027197623"><ele>343.0</ele><time>2026-03-31T11:17:41Z</time></trkpt><trkpt lat="42.18731540862959" lon="-1.3530160994354685"><ele>343.0</ele><time>2026-03-31T11:17:42Z</time></trkpt><trkpt lat="42.18738374739971" lon="-1.3527645454828572"><ele>343.0</ele><time>2026-03-31T11:17:43Z</time></trkpt><trkpt lat="42.18746944845629" lon="-1.3525736873538547"><ele>343.0</ele><time>2026-03-31T11:17:44Z</time></trkpt><trkpt lat="42.18753568242794" lon="-1.3524126470687228"><ele>343.0</ele><time>2026-03-31T11:17:45Z</time></trkpt><trkpt lat="42.187569246007904" lon="-1.3522052629900954"><ele>343.0</ele><time>2026-03-31T11:17:46Z</time></trkpt><trkpt lat="42.187592483630034" lon="-1.3519764063535893"><ele>343.0</ele><time>2026-03-31T11:17:47Z</time></trkpt><trkpt lat="42.18757077691496" lon="-1.3517487921180997"><ele>343.0</ele><time>2026-03-31T11:17:48Z</time></trkpt><trkpt lat="42.1875514960297" lon="-1.351487811797162"><ele>343.0</ele><time>2026-03-31T11:17:49Z</time></trkpt><trkpt lat="42.18753269537726" lon="-1.3512199590169496"><ele>343.3333333333333</ele><time>2026-03-31T11:17:50Z</time></trkpt><trkpt lat="42.18752053738847" lon="-1.3509323035787302"><ele>343.6666666666667</ele><time>2026-03-31T11:17:51Z</time></trkpt><trkpt lat="42.187513852142445" lon="-1.3506655678335424"><ele>344.0</ele><time>2026-03-31T11:17:52Z</time></trkpt><trkpt lat="42.187506396725254" lon="-1.3504037693275426"><ele>344.0</ele><time>2026-03-31T11:17:53Z</time></trkpt><trkpt lat="42.187497490579744" lon="-1.3501658388655153"><ele>344.0</ele><time>2026-03-31T11:17:54Z</time></trkpt><trkpt lat="42.187484810323056" lon="-1.3499341276821877"><ele>344.0</ele><time>2026-03-31T11:17:55Z</time></trkpt><trkpt lat="42.187464166373154" lon="-1.3496874870483682"><ele>343.6666666666667</ele><time>2026-03-31T11:17:56Z</time></trkpt><trkpt lat="42.18741756937903" lon="-1.3494489196983817"><ele>343.3333333333333</ele><time>2026-03-31T11:17:57Z</time></trkpt><trkpt lat="42.18733987112307" lon="-1.349199529573058"><ele>343.0</ele><time>2026-03-31T11:17:58Z</time></trkpt><trkpt lat="42.187240062925106" lon="-1.3489459138005646"><ele>343.66666666666663</ele><time>2026-03-31T11:17:59Z</time></trkpt><trkpt lat="42.187147003739604" lon="-1.3487039876672553"><ele>344.3333333333333</ele><time>2026-03-31T11:18:00Z</time></trkpt><trkpt lat="42.187064034000436" lon="-1.3484528159970925"><ele>345.0</ele><time>2026-03-31T11:18:01Z</time></trkpt><trkpt lat="42.18702562071701" lon="-1.3482052786662109"><ele>345.3333333333333</ele><time>2026-03-31T11:18:02Z</time></trkpt><trkpt lat="42.18698989661566" lon="-1.347929729072827"><ele>345.66666666666663</ele><time>2026-03-31T11:18:03Z</time></trkpt><trkpt lat="42.186950292573314" lon="-1.3476288006311536"><ele>346.0</ele><time>2026-03-31T11:18:04Z</time></trkpt><trkpt lat="42.18691068088485" lon="-1.34733274682263"><ele>346.66666666666663</ele><time>2026-03-31T11:18:05Z</time></trkpt><trkpt lat="42.18686936817694" lon="-1.3470746381027892"><ele>347.3333333333333</ele><time>2026-03-31T11:18:06Z</time></trkpt><trkpt lat="42.18683382414935" lon="-1.3468581459421751"><ele>348.0</ele><time>2026-03-31T11:18:07Z</time></trkpt><trkpt lat="42.186796523219385" lon="-1.346656031210797"><ele>348.0</ele><time>2026-03-31T11:18:08Z</time></trkpt><trkpt lat="42.18675791570079" lon="-1.346441055689924"><ele>348.0</ele><time>2026-03-31T11:18:09Z</time></trkpt><trkpt lat="42.18671359826577" lon="-1.3462129879162086"><ele>348.0</ele><time>2026-03-31T11:18:10Z</time></trkpt><trkpt lat="42.18667431002207" lon="-1.3459837613619663"><ele>348.0</ele><time>2026-03-31T11:18:11Z</time></trkpt><trkpt lat="42.186611523110436" lon="-1.3457645419638438"><ele>348.0</ele><time>2026-03-31T11:18:12Z</time></trkpt><trkpt lat="42.186562579635705" lon="-1.3455445083927684"><ele>348.0</ele><time>2026-03-31T11:18:13Z</time></trkpt><trkpt lat="42.186529960847" lon="-1.345324653615798"><ele>348.0</ele><time>2026-03-31T11:18:14Z</time></trkpt><trkpt lat="42.18648294839889" lon="-1.3451267711234092"><ele>348.0</ele><time>2026-03-31T11:18:15Z</time></trkpt><trkpt lat="42.18643009553679" lon="-1.344965558924123"><ele>348.0</ele><time>2026-03-31T11:18:16Z</time></trkpt><trkpt lat="42.18640328152553" lon="-1.34481136891174"><ele>348.0</ele><time>2026-03-31T11:18:17Z</time></trkpt><trkpt lat="42.18635321937149" lon="-1.3446808559408336"><ele>348.0</ele><time>2026-03-31T11:18:18Z</time></trkpt><trkpt lat="42.1863288382627" lon="-1.3445611678581635"><ele>348.0</ele><time>2026-03-31T11:18:19Z</time></trkpt><trkpt lat="42.18627909018054" lon="-1.3444792450372278"><ele>348.0</ele><time>2026-03-31T11:18:20Z</time></trkpt><trkpt lat="42.18624770274721" lon="-1.3443982364116214"><ele>348.0</ele><time>2026-03-31T11:18:21Z</time></trkpt><trkpt lat="42.186312238005485" lon="-1.3442623992046279"><ele>348.0</ele><time>2026-03-31T11:18:22Z</time></trkpt><trkpt lat="42.1863470252339" lon="-1.344142877337607"><ele>348.0</ele><time>2026-03-31T11:18:23Z</time></trkpt><trkpt lat="42.18640364220015" lon="-1.3439791123642404"><ele>348.0</ele><time>2026-03-31T11:18:24Z</time></trkpt><trkpt lat="42.18648036630281" lon="-1.3438102150202305"><ele>348.0</ele><time>2026-03-31T11:18:25Z</time></trkpt><trkpt lat="42.18656580120639" lon="-1.3436064660507117"><ele>349.3333333333333</ele><time>2026-03-31T11:18:26Z</time></trkpt><trkpt lat="42.18665855775585" lon="-1.3433767386924675"><ele>350.66666666666663</ele><time>2026-03-31T11:18:27Z</time></trkpt><trkpt lat="42.18675266484974" lon="-1.3431279095086304"><ele>352.0</ele><time>2026-03-31T11:18:28Z</time></trkpt><trkpt lat="42.186853918206864" lon="-1.3428633627466329"><ele>352.3333333333333</ele><time>2026-03-31T11:18:29Z</time></trkpt><trkpt lat="42.18693864961262" lon="-1.3426350720880071"><ele>352.6666666666667</ele><time>2026-03-31T11:18:30Z</time></trkpt><trkpt lat="42.18701945823082" lon="-1.342428972045387"><ele>353.0</ele><time>2026-03-31T11:18:31Z</time></trkpt><trkpt lat="42.18709450734501" lon="-1.3422342629712527"><ele>353.75</ele><time>2026-03-31T11:18:32Z</time></trkpt><trkpt lat="42.18717125256239" lon="-1.3420480503965186"><ele>354.5</ele><time>2026-03-31T11:18:33Z</time></trkpt><trkpt lat="42.18722713238373" lon="-1.3419040612558149"><ele>355.25</ele><time>2026-03-31T11:18:34Z</time></trkpt><trkpt lat="42.187273422166896" lon="-1.3417737096750737"><ele>356.0</ele><time>2026-03-31T11:18:35Z</time></trkpt><trkpt lat="42.18731273821198" lon="-1.3416494559590684"><ele>357.0</ele><time>2026-03-31T11:18:36Z</time></trkpt><trkpt lat="42.18734573672844" lon="-1.3415478211463812"><ele>358.0</ele><time>2026-03-31T11:18:37Z</time></trkpt><trkpt lat="42.18737713524413" lon="-1.3414653045743168"><ele>359.0</ele><time>2026-03-31T11:18:38Z</time></trkpt><trkpt lat="42.187442130789314" lon="-1.3413496069088016"><ele>360.0</ele><time>2026-03-31T11:18:40Z</time></trkpt><trkpt lat="42.18751760349584" lon="-1.3413131601802706"><ele>361.0</ele><time>2026-03-31T11:18:42Z</time></trkpt><trkpt lat="42.18758450883052" lon="-1.3412927460506494"><ele>362.0</ele><time>2026-03-31T11:18:44Z</time></trkpt><trkpt lat="42.18769433332997" lon="-1.3412507338254487"><ele>362.33333333333337</ele><time>2026-03-31T11:18:46Z</time></trkpt><trkpt lat="42.187884601061086" lon="-1.3411895216218286"><ele>362.6666666666667</ele><time>2026-03-31T11:18:47Z</time></trkpt><trkpt lat="42.18801747592218" lon="-1.3411690480790395"><ele>363.0</ele><time>2026-03-31T11:18:48Z</time></trkpt><trkpt lat="42.18814047924908" lon="-1.3411215346973855"><ele>363.0</ele><time>2026-03-31T11:18:49Z</time></trkpt><trkpt lat="42.18824517904582" lon="-1.3410842107311536"><ele>363.0</ele><time>2026-03-31T11:18:50Z</time></trkpt><trkpt lat="42.1883264522511" lon="-1.341055842389297"><ele>363.0</ele><time>2026-03-31T11:18:51Z</time></trkpt><trkpt lat="42.18838740380717" lon="-1.3409946992345296"><ele>363.0</ele><time>2026-03-31T11:18:52Z</time></trkpt><trkpt lat="42.18847436256953" lon="-1.3409675460434594"><ele>363.0</ele><time>2026-03-31T11:18:54Z</time></trkpt><trkpt lat="42.1884051149128" lon="-1.3407079619532836"><ele>363.0</ele><time>2026-03-31T11:18:55Z</time></trkpt><trkpt lat="42.18837770151852" lon="-1.3405576404789579"><ele>363.0</ele><time>2026-03-31T11:18:56Z</time></trkpt><trkpt lat="42.188343342098094" lon="-1.3403692311024005"><ele>363.0</ele><time>2026-03-31T11:18:57Z</time></trkpt><trkpt lat="42.18830189132303" lon="-1.340144709085863"><ele>363.0</ele><time>2026-03-31T11:18:58Z</time></trkpt><trkpt lat="42.18827586024362" lon="-1.3399146405412268"><ele>361.3333333333333</ele><time>2026-03-31T11:18:59Z</time></trkpt><trkpt lat="42.18822227958245" lon="-1.3396680151851807"><ele>359.66666666666663</ele><time>2026-03-31T11:19:00Z</time></trkpt><trkpt lat="42.18817527863932" lon="-1.3394113906905392"><ele>358.0</ele><time>2026-03-31T11:19:01Z</time></trkpt><trkpt lat="42.18812869732641" lon="-1.3391565583864287"><ele>358.0</ele><time>2026-03-31T11:19:02Z</time></trkpt><trkpt lat="42.18808469364493" lon="-1.3389046213772675"><ele>358.0</ele><time>2026-03-31T11:19:03Z</time></trkpt><trkpt lat="42.18803822220824" lon="-1.3386595975150366"><ele>358.0</ele><time>2026-03-31T11:19:04Z</time></trkpt><trkpt lat="42.18798981157992" lon="-1.3384393550224"><ele>358.25</ele><time>2026-03-31T11:19:05Z</time></trkpt><trkpt lat="42.18795303219122" lon="-1.338232597322687"><ele>358.5</ele><time>2026-03-31T11:19:06Z</time></trkpt><trkpt lat="42.187919023157555" lon="-1.3380414921738701"><ele>358.75</ele><time>2026-03-31T11:19:07Z</time></trkpt><trkpt lat="42.18786863725484" lon="-1.3378785853962119"><ele>359.0</ele><time>2026-03-31T11:19:08Z</time></trkpt><trkpt lat="42.187840000165146" lon="-1.337745911131754"><ele>359.0</ele><time>2026-03-31T11:19:09Z</time></trkpt><trkpt lat="42.18783653536762" lon="-1.337636261685465"><ele>359.0</ele><time>2026-03-31T11:19:10Z</time></trkpt><trkpt lat="42.18779907422872" lon="-1.337497298566893"><ele>359.0</ele><time>2026-03-31T11:19:12Z</time></trkpt><trkpt lat="42.18778688721785" lon="-1.3373812033411523"><ele>359.0</ele><time>2026-03-31T11:19:13Z</time></trkpt><trkpt lat="42.18777226578373" lon="-1.337179518697669"><ele>359.0</ele><time>2026-03-31T11:19:14Z</time></trkpt><trkpt lat="42.187762529832376" lon="-1.3369448660901146"><ele>359.0</ele><time>2026-03-31T11:19:15Z</time></trkpt><trkpt lat="42.187747726844606" lon="-1.3366871071031083"><ele>359.0</ele><time>2026-03-31T11:19:16Z</time></trkpt><trkpt lat="42.18774761323764" lon="-1.3364803496314501"><ele>359.0</ele><time>2026-03-31T11:19:17Z</time></trkpt><trkpt lat="42.18773745293529" lon="-1.3363311406974643"><ele>359.0</ele><time>2026-03-31T11:19:18Z</time></trkpt><trkpt lat="42.18772575000297" lon="-1.3362254999455239"><ele>359.0</ele><time>2026-03-31T11:19:19Z</time></trkpt><trkpt lat="42.18772625556966" lon="-1.336111669840723"><ele>359.0</ele><time>2026-03-31T11:19:28Z</time></trkpt><trkpt lat="42.18787379289324" lon="-1.3361012664903504"><ele>359.0</ele><time>2026-03-31T11:19:29Z</time></trkpt><trkpt lat="42.18801196090684" lon="-1.3360936179898766"><ele>359.0</ele><time>2026-03-31T11:19:30Z</time></trkpt><trkpt lat="42.18815682327977" lon="-1.3360844690935776"><ele>359.0</ele><time>2026-03-31T11:19:31Z</time></trkpt><trkpt lat="42.188326478076256" lon="-1.336066640130449"><ele>359.0</ele><time>2026-03-31T11:19:32Z</time></trkpt><trkpt lat="42.188498367225336" lon="-1.3360395724676957"><ele>359.0</ele><time>2026-03-31T11:19:33Z</time></trkpt><trkpt lat="42.18868401440199" lon="-1.3360056885481197"><ele>359.0</ele><time>2026-03-31T11:19:34Z</time></trkpt><trkpt lat="42.188873999731044" lon="-1.3359733704289898"><ele>359.0</ele><time>2026-03-31T11:19:35Z</time></trkpt><trkpt lat="42.189070718552" lon="-1.3359442171444575"><ele>359.0</ele><time>2026-03-31T11:19:36Z</time></trkpt><trkpt lat="42.1892738162284" lon="-1.3359117201742032"><ele>359.33333333333337</ele><time>2026-03-31T11:19:37Z</time></trkpt><trkpt lat="42.18947864653592" lon="-1.3358771133317227"><ele>359.6666666666667</ele><time>2026-03-31T11:19:38Z</time></trkpt><trkpt lat="42.189686506317486" lon="-1.3358431628720506"><ele>360.0</ele><time>2026-03-31T11:19:39Z</time></trkpt><trkpt lat="42.18989372064243" lon="-1.3358059476078437"><ele>360.6666666666667</ele><time>2026-03-31T11:19:40Z</time></trkpt><trkpt lat="42.1901031036071" lon="-1.3357670448500407"><ele>361.33333333333337</ele><time>2026-03-31T11:19:41Z</time></trkpt><trkpt lat="42.19031352096806" lon="-1.335730149369855"><ele>362.0</ele><time>2026-03-31T11:19:42Z</time></trkpt><trkpt lat="42.1905181879505" lon="-1.3356907843945471"><ele>362.33333333333337</ele><time>2026-03-31T11:19:43Z</time></trkpt><trkpt lat="42.190715961951284" lon="-1.3356613631275818"><ele>362.6666666666667</ele><time>2026-03-31T11:19:44Z</time></trkpt><trkpt lat="42.19090884828682" lon="-1.3356323758325261"><ele>363.0</ele><time>2026-03-31T11:19:45Z</time></trkpt><trkpt lat="42.191106936148145" lon="-1.3356004209289645"><ele>363.0</ele><time>2026-03-31T11:19:46Z</time></trkpt><trkpt lat="42.19130070974768" lon="-1.3355666404084825"><ele>363.0</ele><time>2026-03-31T11:19:47Z</time></trkpt><trkpt lat="42.19149714239729" lon="-1.3355347176469152"><ele>363.0</ele><time>2026-03-31T11:19:48Z</time></trkpt><trkpt lat="42.19168423704027" lon="-1.335502321965763"><ele>362.6666666666667</ele><time>2026-03-31T11:19:49Z</time></trkpt><trkpt lat="42.191855156150744" lon="-1.335469093646022"><ele>362.33333333333337</ele><time>2026-03-31T11:19:50Z</time></trkpt><trkpt lat="42.192024654185154" lon="-1.3354415210175847"><ele>362.0</ele><time>2026-03-31T11:19:51Z</time></trkpt><trkpt lat="42.192185580712994" lon="-1.3354166801224627"><ele>362.0</ele><time>2026-03-31T11:19:52Z</time></trkpt><trkpt lat="42.192332924139116" lon="-1.3353886360340312"><ele>362.0</ele><time>2026-03-31T11:19:53Z</time></trkpt><trkpt lat="42.19246503197742" lon="-1.3353632628960699"><ele>362.0</ele><time>2026-03-31T11:19:54Z</time></trkpt><trkpt lat="42.1925817789235" lon="-1.335342433858402"><ele>362.0</ele><time>2026-03-31T11:19:55Z</time></trkpt><trkpt lat="42.19268227740316" lon="-1.3353274590325488"><ele>361.75</ele><time>2026-03-31T11:19:56Z</time></trkpt><trkpt lat="42.19278212551195" lon="-1.3353128127147222"><ele>361.5</ele><time>2026-03-31T11:19:57Z</time></trkpt><trkpt lat="42.192919846282976" lon="-1.335288636790097"><ele>361.25</ele><time>2026-03-31T11:19:58Z</time></trkpt><trkpt lat="42.19306345977967" lon="-1.335265826611662"><ele>361.0</ele><time>2026-03-31T11:19:59Z</time></trkpt><trkpt lat="42.19322944025143" lon="-1.3352385876012776"><ele>362.3333333333333</ele><time>2026-03-31T11:20:00Z</time></trkpt><trkpt lat="42.19340297926957" lon="-1.3352112983881095"><ele>363.6666666666667</ele><time>2026-03-31T11:20:01Z</time></trkpt><trkpt lat="42.19356882363652" lon="-1.335186567876465"><ele>365.0</ele><time>2026-03-31T11:20:02Z</time></trkpt><trkpt lat="42.19373398786565" lon="-1.3351592870010436"><ele>365.0</ele><time>2026-03-31T11:20:03Z</time></trkpt><trkpt lat="42.19390563123661" lon="-1.335124712950715"><ele>365.0</ele><time>2026-03-31T11:20:04Z</time></trkpt><trkpt lat="42.19408162851988" lon="-1.3350926930093439"><ele>365.0</ele><time>2026-03-31T11:20:05Z</time></trkpt><trkpt lat="42.19426521003574" lon="-1.3350647878031912"><ele>366.0</ele><time>2026-03-31T11:20:06Z</time></trkpt><trkpt lat="42.19445042689961" lon="-1.335037119056478"><ele>367.0</ele><time>2026-03-31T11:20:07Z</time></trkpt><trkpt lat="42.19462973081698" lon="-1.3350062109385552"><ele>368.0</ele><time>2026-03-31T11:20:08Z</time></trkpt><trkpt lat="42.1948076220349" lon="-1.3349749872687389"><ele>367.33333333333337</ele><time>2026-03-31T11:20:09Z</time></trkpt><trkpt lat="42.19498506226185" lon="-1.3349453678492007"><ele>366.6666666666667</ele><time>2026-03-31T11:20:10Z</time></trkpt><trkpt lat="42.19516921708989" lon="-1.33490715651894"><ele>366.0</ele><time>2026-03-31T11:20:11Z</time></trkpt><trkpt lat="42.19535225095708" lon="-1.3348742318053632"><ele>366.0</ele><time>2026-03-31T11:20:12Z</time></trkpt><trkpt lat="42.19555812240655" lon="-1.3348406689852643"><ele>366.0</ele><time>2026-03-31T11:20:13Z</time></trkpt><trkpt lat="42.19577898800331" lon="-1.334809543555388"><ele>366.0</ele><time>2026-03-31T11:20:14Z</time></trkpt><trkpt lat="42.196005943991295" lon="-1.334777107146404"><ele>366.5</ele><time>2026-03-31T11:20:15Z</time></trkpt><trkpt lat="42.19623596183429" lon="-1.3347355266413738"><ele>367.0</ele><time>2026-03-31T11:20:16Z</time></trkpt><trkpt lat="42.19646715658271" lon="-1.3346922113981785"><ele>366.0</ele><time>2026-03-31T11:20:17Z</time></trkpt><trkpt lat="42.19669689995745" lon="-1.3346607513855233"><ele>365.0</ele><time>2026-03-31T11:20:18Z</time></trkpt><trkpt lat="42.19692527694078" lon="-1.3346257309099279"><ele>365.0</ele><time>2026-03-31T11:20:19Z</time></trkpt><trkpt lat="42.1971494976453" lon="-1.3345840128831687"><ele>365.0</ele><time>2026-03-31T11:20:20Z</time></trkpt><trkpt lat="42.19737888015518" lon="-1.3345434555152638"><ele>366.0</ele><time>2026-03-31T11:20:21Z</time></trkpt><trkpt lat="42.197606984608214" lon="-1.3345044483570518"><ele>367.0</ele><time>2026-03-31T11:20:22Z</time></trkpt><trkpt lat="42.19783248614596" lon="-1.3344672170313294"><ele>367.0</ele><time>2026-03-31T11:20:23Z</time></trkpt><trkpt lat="42.19805449897269" lon="-1.3344321828391439"><ele>367.0</ele><time>2026-03-31T11:20:24Z</time></trkpt><trkpt lat="42.198278037828054" lon="-1.3343944957325595"><ele>367.0</ele><time>2026-03-31T11:20:25Z</time></trkpt><trkpt lat="42.198506762329764" lon="-1.3343557036328852"><ele>367.0</ele><time>2026-03-31T11:20:26Z</time></trkpt><trkpt lat="42.1987300941791" lon="-1.3343144866237981"><ele>367.0</ele><time>2026-03-31T11:20:27Z</time></trkpt><trkpt lat="42.198950792711265" lon="-1.3342793407623161"><ele>367.0</ele><time>2026-03-31T11:20:28Z</time></trkpt><trkpt lat="42.19916817888248" lon="-1.3342490846770747"><ele>367.66666666666663</ele><time>2026-03-31T11:20:29Z</time></trkpt><trkpt lat="42.19938686582601" lon="-1.3342144493393062"><ele>368.3333333333333</ele><time>2026-03-31T11:20:30Z</time></trkpt><trkpt lat="42.19960190069193" lon="-1.3341801735061893"><ele>369.0</ele><time>2026-03-31T11:20:31Z</time></trkpt><trkpt lat="42.19981994968778" lon="-1.334148556218367"><ele>369.0</ele><time>2026-03-31T11:20:32Z</time></trkpt><trkpt lat="42.20003622818183" lon="-1.3341192724309316"><ele>369.0</ele><time>2026-03-31T11:20:33Z</time></trkpt><trkpt lat="42.20024984680256" lon="-1.334091786390364"><ele>369.0</ele><time>2026-03-31T11:20:34Z</time></trkpt><trkpt lat="42.20046332162814" lon="-1.3340619186503604"><ele>369.0</ele><time>2026-03-31T11:20:35Z</time></trkpt><trkpt lat="42.20068088765195" lon="-1.334028103843733"><ele>369.0</ele><time>2026-03-31T11:20:36Z</time></trkpt><trkpt lat="42.200896424983235" lon="-1.3339907889326448"><ele>369.0</ele><time>2026-03-31T11:20:37Z</time></trkpt><trkpt lat="42.201109591088354" lon="-1.3339544012905724"><ele>369.0</ele><time>2026-03-31T11:20:38Z</time></trkpt><trkpt lat="42.201325257774435" lon="-1.3339215673000282"><ele>369.0</ele><time>2026-03-31T11:20:39Z</time></trkpt><trkpt lat="42.2015477478242" lon="-1.3338875171130113"><ele>369.0</ele><time>2026-03-31T11:20:40Z</time></trkpt><trkpt lat="42.20177528641837" lon="-1.3338506194085427"><ele>369.0</ele><time>2026-03-31T11:20:41Z</time></trkpt><trkpt lat="42.20201563513688" lon="-1.3338111738013516"><ele>369.0</ele><time>2026-03-31T11:20:42Z</time></trkpt><trkpt lat="42.20225646048448" lon="-1.3337736834020766"><ele>369.0</ele><time>2026-03-31T11:20:43Z</time></trkpt><trkpt lat="42.20249752840898" lon="-1.3337327993565677"><ele>369.0</ele><time>2026-03-31T11:20:44Z</time></trkpt><trkpt lat="42.202733118998175" lon="-1.3336882773915426"><ele>369.0</ele><time>2026-03-31T11:20:45Z</time></trkpt><trkpt lat="42.20296957734795" lon="-1.333644603922117"><ele>369.0</ele><time>2026-03-31T11:20:46Z</time></trkpt><trkpt lat="42.20320284292406" lon="-1.333606125700548"><ele>369.5</ele><time>2026-03-31T11:20:47Z</time></trkpt><trkpt lat="42.20343397425389" lon="-1.3335665519496742"><ele>370.0</ele><time>2026-03-31T11:20:48Z</time></trkpt><trkpt lat="42.203664945795964" lon="-1.3335266070230243"><ele>370.0</ele><time>2026-03-31T11:20:49Z</time></trkpt><trkpt lat="42.20389698736619" lon="-1.3334914053420852"><ele>370.0</ele><time>2026-03-31T11:20:50Z</time></trkpt><trkpt lat="42.20413362085403" lon="-1.3334542341463407"><ele>371.0</ele><time>2026-03-31T11:20:51Z</time></trkpt><trkpt lat="42.20437607561386" lon="-1.3334121883470453"><ele>372.0</ele><time>2026-03-31T11:20:52Z</time></trkpt><trkpt lat="42.20461910871811" lon="-1.33337032659234"><ele>371.5</ele><time>2026-03-31T11:20:53Z</time></trkpt><trkpt lat="42.204855776694934" lon="-1.3333271223698808"><ele>371.0</ele><time>2026-03-31T11:20:54Z</time></trkpt><trkpt lat="42.205093329245834" lon="-1.3332853253917336"><ele>371.0</ele><time>2026-03-31T11:20:55Z</time></trkpt><trkpt lat="42.205329505340295" lon="-1.3332520985132503"><ele>371.0</ele><time>2026-03-31T11:20:56Z</time></trkpt><trkpt lat="42.2055653107835" lon="-1.3332116757062917"><ele>371.5</ele><time>2026-03-31T11:20:57Z</time></trkpt><trkpt lat="42.20579952071745" lon="-1.3331729290667658"><ele>372.0</ele><time>2026-03-31T11:20:58Z</time></trkpt><trkpt lat="42.20603546220196" lon="-1.3331378646678775"><ele>372.0</ele><time>2026-03-31T11:20:59Z</time></trkpt><trkpt lat="42.20626772627974" lon="-1.3330955342865518"><ele>372.0</ele><time>2026-03-31T11:21:00Z</time></trkpt><trkpt lat="42.20650328175797" lon="-1.3330505412004108"><ele>371.5</ele><time>2026-03-31T11:21:01Z</time></trkpt><trkpt lat="42.206739860869945" lon="-1.3330108349146417"><ele>371.0</ele><time>2026-03-31T11:21:02Z</time></trkpt><trkpt lat="42.20697349188622" lon="-1.3329667791396078"><ele>371.0</ele><time>2026-03-31T11:21:03Z</time></trkpt><trkpt lat="42.20720723366065" lon="-1.332922179375121"><ele>371.0</ele><time>2026-03-31T11:21:04Z</time></trkpt><trkpt lat="42.20743900262742" lon="-1.3328850120605733"><ele>372.0</ele><time>2026-03-31T11:21:05Z</time></trkpt><trkpt lat="42.20767304733122" lon="-1.3328496820667628"><ele>373.0</ele><time>2026-03-31T11:21:06Z</time></trkpt><trkpt lat="42.20790636849332" lon="-1.3328090870210993"><ele>373.0</ele><time>2026-03-31T11:21:07Z</time></trkpt><trkpt lat="42.208139813151604" lon="-1.332765979684497"><ele>373.0</ele><time>2026-03-31T11:21:08Z</time></trkpt><trkpt lat="42.20837677904419" lon="-1.3327283518510262"><ele>374.0</ele><time>2026-03-31T11:21:09Z</time></trkpt><trkpt lat="42.20861655944365" lon="-1.3326946569046438"><ele>375.0</ele><time>2026-03-31T11:21:10Z</time></trkpt><trkpt lat="42.20885680248866" lon="-1.332657117987538"><ele>375.5</ele><time>2026-03-31T11:21:11Z</time></trkpt><trkpt lat="42.20909193335062" lon="-1.3326180008427133"><ele>376.0</ele><time>2026-03-31T11:21:12Z</time></trkpt><trkpt lat="42.209329021843914" lon="-1.3325843489521711"><ele>376.0</ele><time>2026-03-31T11:21:13Z</time></trkpt><trkpt lat="42.20956397712206" lon="-1.332541602823463"><ele>376.0</ele><time>2026-03-31T11:21:14Z</time></trkpt><trkpt lat="42.20980294435012" lon="-1.332494476229437"><ele>376.0</ele><time>2026-03-31T11:21:15Z</time></trkpt><trkpt lat="42.210038443089964" lon="-1.3324502219827994"><ele>376.0</ele><time>2026-03-31T11:21:16Z</time></trkpt><trkpt lat="42.21027532438483" lon="-1.332408276214474"><ele>376.0</ele><time>2026-03-31T11:21:17Z</time></trkpt><trkpt lat="42.21051048172541" lon="-1.3323678296416146"><ele>376.0</ele><time>2026-03-31T11:21:18Z</time></trkpt><trkpt lat="42.21074767505208" lon="-1.3323246896438807"><ele>376.0</ele><time>2026-03-31T11:21:19Z</time></trkpt><trkpt lat="42.2109839188222" lon="-1.3322823955058556"><ele>376.0</ele><time>2026-03-31T11:21:20Z</time></trkpt><trkpt lat="42.21122353046968" lon="-1.3322411591227705"><ele>375.5</ele><time>2026-03-31T11:21:21Z</time></trkpt><trkpt lat="42.211462705207325" lon="-1.3321985042820332"><ele>375.0</ele><time>2026-03-31T11:21:22Z</time></trkpt><trkpt lat="42.211700568460124" lon="-1.3321602950338067"><ele>376.0</ele><time>2026-03-31T11:21:23Z</time></trkpt><trkpt lat="42.21194143801051" lon="-1.332126807092011"><ele>377.0</ele><time>2026-03-31T11:21:24Z</time></trkpt><trkpt lat="42.212177646351726" lon="-1.3320866920863053"><ele>376.5</ele><time>2026-03-31T11:21:25Z</time></trkpt><trkpt lat="42.212415797918915" lon="-1.3320394283943138"><ele>376.0</ele><time>2026-03-31T11:21:26Z</time></trkpt><trkpt lat="42.212655164827346" lon="-1.331996628346628"><ele>376.0</ele><time>2026-03-31T11:21:27Z</time></trkpt><trkpt lat="42.21289152669622" lon="-1.3319581914060843"><ele>376.0</ele><time>2026-03-31T11:21:28Z</time></trkpt><trkpt lat="42.213127076941205" lon="-1.33191754111915"><ele>376.5</ele><time>2026-03-31T11:21:29Z</time></trkpt><trkpt lat="42.213370875209115" lon="-1.3318776906714094"><ele>377.0</ele><time>2026-03-31T11:21:30Z</time></trkpt><trkpt lat="42.21361694096741" lon="-1.3318481706712877"><ele>377.0</ele><time>2026-03-31T11:21:31Z</time></trkpt><trkpt lat="42.21386470607896" lon="-1.3318221935011683"><ele>377.0</ele><time>2026-03-31T11:21:32Z</time></trkpt><trkpt lat="42.214092157884636" lon="-1.3317677920248394"><ele>377.5</ele><time>2026-03-31T11:21:33Z</time></trkpt><trkpt lat="42.214337375919534" lon="-1.3317280885400777"><ele>378.0</ele><time>2026-03-31T11:21:34Z</time></trkpt><trkpt lat="42.21458249036264" lon="-1.3316855316187004"><ele>378.0</ele><time>2026-03-31T11:21:35Z</time></trkpt><trkpt lat="42.214829544859285" lon="-1.3316345646013181"><ele>378.0</ele><time>2026-03-31T11:21:36Z</time></trkpt><trkpt lat="42.215079258259685" lon="-1.331586984334904"><ele>378.0</ele><time>2026-03-31T11:21:37Z</time></trkpt><trkpt lat="42.21533047546984" lon="-1.3315473982699892"><ele>378.0</ele><time>2026-03-31T11:21:38Z</time></trkpt><trkpt lat="42.215580949946016" lon="-1.3315054124275847"><ele>379.0</ele><time>2026-03-31T11:21:39Z</time></trkpt><trkpt lat="42.21582997397991" lon="-1.3314580426482157"><ele>380.0</ele><time>2026-03-31T11:21:40Z</time></trkpt><trkpt lat="42.21607847261917" lon="-1.3314125576998994"><ele>380.0</ele><time>2026-03-31T11:21:41Z</time></trkpt><trkpt lat="42.21633117598479" lon="-1.3313767947235386"><ele>380.0</ele><time>2026-03-31T11:21:42Z</time></trkpt><trkpt lat="42.2165789005572" lon="-1.331338967911133"><ele>379.5</ele><time>2026-03-31T11:21:43Z</time></trkpt><trkpt lat="42.216823726917276" lon="-1.3312937518617007"><ele>379.0</ele><time>2026-03-31T11:21:44Z</time></trkpt><trkpt lat="42.217070862313335" lon="-1.331250554729547"><ele>380.0</ele><time>2026-03-31T11:21:45Z</time></trkpt><trkpt lat="42.21732023438077" lon="-1.3312094115740591"><ele>381.0</ele><time>2026-03-31T11:21:46Z</time></trkpt><trkpt lat="42.21757156796612" lon="-1.3311686413261816"><ele>381.0</ele><time>2026-03-31T11:21:47Z</time></trkpt><trkpt lat="42.21782454729721" lon="-1.3311236616275426"><ele>381.0</ele><time>2026-03-31T11:21:48Z</time></trkpt><trkpt lat="42.21807814940238" lon="-1.3310802549286995"><ele>381.0</ele><time>2026-03-31T11:21:49Z</time></trkpt><trkpt lat="42.21833101923394" lon="-1.3310393569011334"><ele>381.0</ele><time>2026-03-31T11:21:50Z</time></trkpt><trkpt lat="42.21858323179427" lon="-1.3309963175501072"><ele>381.0</ele><time>2026-03-31T11:21:51Z</time></trkpt><trkpt lat="42.218832403867594" lon="-1.3309550695194057"><ele>381.0</ele><time>2026-03-31T11:21:52Z</time></trkpt><trkpt lat="42.21907978631186" lon="-1.3309110944443803"><ele>381.5</ele><time>2026-03-31T11:21:53Z</time></trkpt><trkpt lat="42.219326538436945" lon="-1.3308694142380788"><ele>382.0</ele><time>2026-03-31T11:21:54Z</time></trkpt><trkpt lat="42.219565637591394" lon="-1.3308284529041705"><ele>382.0</ele><time>2026-03-31T11:21:55Z</time></trkpt><trkpt lat="42.21981161841657" lon="-1.3307909141186827"><ele>382.0</ele><time>2026-03-31T11:21:56Z</time></trkpt><trkpt lat="42.220057214845994" lon="-1.3307508433224782"><ele>383.0</ele><time>2026-03-31T11:21:57Z</time></trkpt><trkpt lat="42.22030118691082" lon="-1.3307080847785986"><ele>384.0</ele><time>2026-03-31T11:21:58Z</time></trkpt><trkpt lat="42.22055236886264" lon="-1.3306638207456016"><ele>385.0</ele><time>2026-03-31T11:21:59Z</time></trkpt><trkpt lat="42.22080287564803" lon="-1.3306215439483298"><ele>386.0</ele><time>2026-03-31T11:22:00Z</time></trkpt><trkpt lat="42.22105704918333" lon="-1.330578729967418"><ele>386.0</ele><time>2026-03-31T11:22:01Z</time></trkpt><trkpt lat="42.22131303083152" lon="-1.3305356423769068"><ele>386.0</ele><time>2026-03-31T11:22:02Z</time></trkpt><trkpt lat="42.22156571497621" lon="-1.3304897422961557"><ele>384.0</ele><time>2026-03-31T11:22:03Z</time></trkpt><trkpt lat="42.22181777630698" lon="-1.3304475148432293"><ele>382.0</ele><time>2026-03-31T11:22:04Z</time></trkpt><trkpt lat="42.22206547917974" lon="-1.330404215321009"><ele>382.0</ele><time>2026-03-31T11:22:05Z</time></trkpt><trkpt lat="42.22231465783686" lon="-1.3303610225557148"><ele>382.0</ele><time>2026-03-31T11:22:06Z</time></trkpt><trkpt lat="42.22256121672311" lon="-1.330321052036725"><ele>382.5</ele><time>2026-03-31T11:22:07Z</time></trkpt><trkpt lat="42.22280507144761" lon="-1.3302835872356766"><ele>383.0</ele><time>2026-03-31T11:22:08Z</time></trkpt><trkpt lat="42.22304850372906" lon="-1.3302437232806834"><ele>384.0</ele><time>2026-03-31T11:22:09Z</time></trkpt><trkpt lat="42.223290410244694" lon="-1.3301991861975333"><ele>385.0</ele><time>2026-03-31T11:22:10Z</time></trkpt><trkpt lat="42.22353031236586" lon="-1.3301553440636507"><ele>385.0</ele><time>2026-03-31T11:22:11Z</time></trkpt><trkpt lat="42.22376972927446" lon="-1.3301143094804975"><ele>385.0</ele><time>2026-03-31T11:22:12Z</time></trkpt><trkpt lat="42.22400851018855" lon="-1.3300741610068907"><ele>386.0</ele><time>2026-03-31T11:22:13Z</time></trkpt><trkpt lat="42.22424906841223" lon="-1.3300368011582338"><ele>387.0</ele><time>2026-03-31T11:22:14Z</time></trkpt><trkpt lat="42.22449052226236" lon="-1.3299964261257786"><ele>387.0</ele><time>2026-03-31T11:22:15Z</time></trkpt><trkpt lat="42.224731138065835" lon="-1.329957216589201"><ele>387.0</ele><time>2026-03-31T11:22:16Z</time></trkpt><trkpt lat="42.22497256163963" lon="-1.3299150586077975"><ele>387.0</ele><time>2026-03-31T11:22:17Z</time></trkpt><trkpt lat="42.22521202346597" lon="-1.329870144444798"><ele>387.0</ele><time>2026-03-31T11:22:18Z</time></trkpt><trkpt lat="42.22545135117415" lon="-1.329827902233415"><ele>387.5</ele><time>2026-03-31T11:22:19Z</time></trkpt><trkpt lat="42.225689393008764" lon="-1.3297950638355498"><ele>388.0</ele><time>2026-03-31T11:22:20Z</time></trkpt><trkpt lat="42.2259284264472" lon="-1.3297598715221215"><ele>388.5</ele><time>2026-03-31T11:22:21Z</time></trkpt><trkpt lat="42.2261662273574" lon="-1.3297190510129882"><ele>389.0</ele><time>2026-03-31T11:22:22Z</time></trkpt><trkpt lat="42.22640122464827" lon="-1.3296752068590465"><ele>389.5</ele><time>2026-03-31T11:22:23Z</time></trkpt><trkpt lat="42.22663900366915" lon="-1.3296311202668825"><ele>390.0</ele><time>2026-03-31T11:22:24Z</time></trkpt><trkpt lat="42.22687896728507" lon="-1.3295906869542837"><ele>390.0</ele><time>2026-03-31T11:22:25Z</time></trkpt><trkpt lat="42.22711925580042" lon="-1.3295465540760822"><ele>390.0</ele><time>2026-03-31T11:22:26Z</time></trkpt><trkpt lat="42.227357825000546" lon="-1.3295053801222094"><ele>391.5</ele><time>2026-03-31T11:22:27Z</time></trkpt><trkpt lat="42.22760339682027" lon="-1.3294678138910077"><ele>393.0</ele><time>2026-03-31T11:22:28Z</time></trkpt><trkpt lat="42.22784859444557" lon="-1.3294278436186364"><ele>393.0</ele><time>2026-03-31T11:22:29Z</time></trkpt><trkpt lat="42.22809548823848" lon="-1.3293845037910275"><ele>393.0</ele><time>2026-03-31T11:22:30Z</time></trkpt><trkpt lat="42.228341806229885" lon="-1.3293430970863653"><ele>393.0</ele><time>2026-03-31T11:22:31Z</time></trkpt><trkpt lat="42.228593132037034" lon="-1.329304173627359"><ele>393.0</ele><time>2026-03-31T11:22:32Z</time></trkpt><trkpt lat="42.228846162089496" lon="-1.3292635590033224"><ele>393.0</ele><time>2026-03-31T11:22:33Z</time></trkpt><trkpt lat="42.2290995801207" lon="-1.3292185582035405"><ele>393.0</ele><time>2026-03-31T11:22:34Z</time></trkpt><trkpt lat="42.229359560420676" lon="-1.3291735110451757"><ele>393.0</ele><time>2026-03-31T11:22:35Z</time></trkpt><trkpt lat="42.229618644866335" lon="-1.3291315782441335"><ele>393.0</ele><time>2026-03-31T11:22:36Z</time></trkpt><trkpt lat="42.22987085461462" lon="-1.3290884638270106"><ele>393.0</ele><time>2026-03-31T11:22:37Z</time></trkpt><trkpt lat="42.23012406652623" lon="-1.3290451477926521"><ele>393.0</ele><time>2026-03-31T11:22:38Z</time></trkpt><trkpt lat="42.23038028242994" lon="-1.329000193509857"><ele>393.0</ele><time>2026-03-31T11:22:39Z</time></trkpt><trkpt lat="42.23063637620526" lon="-1.328954607004828"><ele>393.0</ele><time>2026-03-31T11:22:40Z</time></trkpt><trkpt lat="42.23088870904772" lon="-1.3289089030285046"><ele>393.0</ele><time>2026-03-31T11:22:41Z</time></trkpt><trkpt lat="42.231139362731085" lon="-1.3288598083777912"><ele>393.0</ele><time>2026-03-31T11:22:42Z</time></trkpt><trkpt lat="42.2313934545944" lon="-1.3288145429716591"><ele>392.0</ele><time>2026-03-31T11:22:43Z</time></trkpt><trkpt lat="42.231647862428936" lon="-1.3287805035152074"><ele>391.0</ele><time>2026-03-31T11:22:44Z</time></trkpt><trkpt lat="42.231907433521826" lon="-1.3287420027773302"><ele>391.0</ele><time>2026-03-31T11:22:45Z</time></trkpt><trkpt lat="42.23216419448401" lon="-1.3286962046053348"><ele>391.0</ele><time>2026-03-31T11:22:46Z</time></trkpt><trkpt lat="42.23242046340167" lon="-1.3286551673065543"><ele>392.0</ele><time>2026-03-31T11:22:47Z</time></trkpt><trkpt lat="42.23267702729053" lon="-1.3286094948455527"><ele>393.0</ele><time>2026-03-31T11:22:48Z</time></trkpt><trkpt lat="42.23293350301044" lon="-1.3285607778127533"><ele>393.0</ele><time>2026-03-31T11:22:49Z</time></trkpt><trkpt lat="42.23318950846083" lon="-1.3285168567656649"><ele>393.0</ele><time>2026-03-31T11:22:50Z</time></trkpt><trkpt lat="42.233445061617005" lon="-1.3284788246651058"><ele>393.0</ele><time>2026-03-31T11:22:51Z</time></trkpt><trkpt lat="42.233700775981774" lon="-1.3284399812868788"><ele>393.0</ele><time>2026-03-31T11:22:52Z</time></trkpt><trkpt lat="42.23395614528045" lon="-1.3283909586817007"><ele>392.5</ele><time>2026-03-31T11:22:53Z</time></trkpt><trkpt lat="42.23421551121874" lon="-1.3283405252928"><ele>392.0</ele><time>2026-03-31T11:22:54Z</time></trkpt><trkpt lat="42.23448327014917" lon="-1.328296041009268"><ele>392.0</ele><time>2026-03-31T11:22:55Z</time></trkpt><trkpt lat="42.23474945992014" lon="-1.3282544576011357"><ele>392.0</ele><time>2026-03-31T11:22:56Z</time></trkpt><trkpt lat="42.23501143484157" lon="-1.3282132134298734"><ele>392.0</ele><time>2026-03-31T11:22:57Z</time></trkpt><trkpt lat="42.235277378421934" lon="-1.3281708791782145"><ele>392.0</ele><time>2026-03-31T11:22:58Z</time></trkpt><trkpt lat="42.23554105206545" lon="-1.3281216916484568"><ele>393.0</ele><time>2026-03-31T11:22:59Z</time></trkpt><trkpt lat="42.23580619536724" lon="-1.3280729435775276"><ele>394.0</ele><time>2026-03-31T11:23:00Z</time></trkpt><trkpt lat="42.236070821765445" lon="-1.3280268696975586"><ele>394.5</ele><time>2026-03-31T11:23:01Z</time></trkpt><trkpt lat="42.23633755206579" lon="-1.327988997594526"><ele>395.0</ele><time>2026-03-31T11:23:02Z</time></trkpt><trkpt lat="42.23660420304278" lon="-1.3279516954598238"><ele>395.0</ele><time>2026-03-31T11:23:03Z</time></trkpt><trkpt lat="42.23686678275035" lon="-1.3278989653540325"><ele>395.0</ele><time>2026-03-31T11:23:04Z</time></trkpt><trkpt lat="42.237134250191" lon="-1.3278443477114013"><ele>395.5</ele><time>2026-03-31T11:23:05Z</time></trkpt><trkpt lat="42.23740556127402" lon="-1.327805263341342"><ele>396.0</ele><time>2026-03-31T11:23:06Z</time></trkpt><trkpt lat="42.23767368742537" lon="-1.3277645541616678"><ele>396.0</ele><time>2026-03-31T11:23:07Z</time></trkpt><trkpt lat="42.23794417981359" lon="-1.3277168033096758"><ele>396.0</ele><time>2026-03-31T11:23:08Z</time></trkpt><trkpt lat="42.23821270296791" lon="-1.3276643495250975"><ele>396.5</ele><time>2026-03-31T11:23:09Z</time></trkpt><trkpt lat="42.23848997555922" lon="-1.327615586621127"><ele>397.0</ele><time>2026-03-31T11:23:10Z</time></trkpt><trkpt lat="42.23876356631846" lon="-1.3275756617842307"><ele>398.5</ele><time>2026-03-31T11:23:11Z</time></trkpt><trkpt lat="42.23904067237381" lon="-1.3275327845247409"><ele>400.0</ele><time>2026-03-31T11:23:12Z</time></trkpt><trkpt lat="42.23931674254207" lon="-1.327484251215993"><ele>400.0</ele><time>2026-03-31T11:23:13Z</time></trkpt><trkpt lat="42.239588669242025" lon="-1.327434259731349"><ele>400.0</ele><time>2026-03-31T11:23:14Z</time></trkpt><trkpt lat="42.23986267418619" lon="-1.3273834147379087"><ele>400.0</ele><time>2026-03-31T11:23:15Z</time></trkpt><trkpt lat="42.24014374558669" lon="-1.327336137523841"><ele>400.0</ele><time>2026-03-31T11:23:16Z</time></trkpt><trkpt lat="42.24041945855108" lon="-1.3272920818932192"><ele>400.0</ele><time>2026-03-31T11:23:17Z</time></trkpt><trkpt lat="42.24068773596765" lon="-1.3272475488832796"><ele>400.0</ele><time>2026-03-31T11:23:18Z</time></trkpt><trkpt lat="42.240947141549626" lon="-1.3272010705787842"><ele>400.0</ele><time>2026-03-31T11:23:19Z</time></trkpt><trkpt lat="42.24120454766855" lon="-1.3271560056483582"><ele>400.0</ele><time>2026-03-31T11:23:20Z</time></trkpt><trkpt lat="42.24145846994745" lon="-1.327108895499446"><ele>400.5</ele><time>2026-03-31T11:23:21Z</time></trkpt><trkpt lat="42.24171013751898" lon="-1.3270642969461617"><ele>401.0</ele><time>2026-03-31T11:23:22Z</time></trkpt><trkpt lat="42.241967314678234" lon="-1.3270264186148284"><ele>401.0</ele><time>2026-03-31T11:23:23Z</time></trkpt><trkpt lat="42.24222395561006" lon="-1.3269915123955767"><ele>401.0</ele><time>2026-03-31T11:23:24Z</time></trkpt><trkpt lat="42.2424823682718" lon="-1.32695378227543"><ele>401.0</ele><time>2026-03-31T11:23:25Z</time></trkpt><trkpt lat="42.24273654342023" lon="-1.3269057640284059"><ele>401.0</ele><time>2026-03-31T11:23:26Z</time></trkpt><trkpt lat="42.242993515980395" lon="-1.3268568153173876"><ele>401.0</ele><time>2026-03-31T11:23:27Z</time></trkpt><trkpt lat="42.24325297109704" lon="-1.3268096828589793"><ele>401.0</ele><time>2026-03-31T11:23:28Z</time></trkpt><trkpt lat="42.243513867726186" lon="-1.3267636699972267"><ele>401.0</ele><time>2026-03-31T11:23:29Z</time></trkpt><trkpt lat="42.243775620370805" lon="-1.3267176076108458"><ele>401.0</ele><time>2026-03-31T11:23:30Z</time></trkpt><trkpt lat="42.2440424722492" lon="-1.3266775356834355"><ele>403.5</ele><time>2026-03-31T11:23:31Z</time></trkpt><trkpt lat="42.244310306252" lon="-1.326636993831414"><ele>406.0</ele><time>2026-03-31T11:23:32Z</time></trkpt><trkpt lat="42.2445807657703" lon="-1.3265874006946905"><ele>407.0</ele><time>2026-03-31T11:23:33Z</time></trkpt><trkpt lat="42.24485118625292" lon="-1.326534606718132"><ele>408.0</ele><time>2026-03-31T11:23:34Z</time></trkpt><trkpt lat="42.24512403871044" lon="-1.3264877420963948"><ele>408.0</ele><time>2026-03-31T11:23:35Z</time></trkpt><trkpt lat="42.2453994639282" lon="-1.32644784124767"><ele>408.0</ele><time>2026-03-31T11:23:36Z</time></trkpt><trkpt lat="42.245674568894536" lon="-1.3264050728349295"><ele>406.5</ele><time>2026-03-31T11:23:37Z</time></trkpt><trkpt lat="42.24594695928033" lon="-1.3263574723671658"><ele>405.0</ele><time>2026-03-31T11:23:38Z</time></trkpt><trkpt lat="42.24621816272865" lon="-1.3263087525618138"><ele>406.0</ele><time>2026-03-31T11:23:39Z</time></trkpt><trkpt lat="42.2464855994539" lon="-1.326259732774668"><ele>407.0</ele><time>2026-03-31T11:23:40Z</time></trkpt><trkpt lat="42.246754753433024" lon="-1.3262154008273142"><ele>407.0</ele><time>2026-03-31T11:23:41Z</time></trkpt><trkpt lat="42.2470247939956" lon="-1.326167892943286"><ele>407.0</ele><time>2026-03-31T11:23:42Z</time></trkpt><trkpt lat="42.24729599326708" lon="-1.3261199371348977"><ele>408.5</ele><time>2026-03-31T11:23:43Z</time></trkpt><trkpt lat="42.247564311085874" lon="-1.326073541950152"><ele>410.0</ele><time>2026-03-31T11:23:44Z</time></trkpt><trkpt lat="42.24783310778812" lon="-1.326028964499975"><ele>410.0</ele><time>2026-03-31T11:23:45Z</time></trkpt><trkpt lat="42.248099743484" lon="-1.3259825830721537"><ele>410.0</ele><time>2026-03-31T11:23:46Z</time></trkpt><trkpt lat="42.24836916559168" lon="-1.3259333828811057"><ele>410.5</ele><time>2026-03-31T11:23:47Z</time></trkpt><trkpt lat="42.24864531967479" lon="-1.325889420520179"><ele>411.0</ele><time>2026-03-31T11:23:48Z</time></trkpt><trkpt lat="42.24892557371442" lon="-1.3258505395191282"><ele>411.5</ele><time>2026-03-31T11:23:49Z</time></trkpt><trkpt lat="42.24921101294967" lon="-1.3257954506932499"><ele>412.0</ele><time>2026-03-31T11:23:50Z</time></trkpt><trkpt lat="42.2495072832379" lon="-1.325744382300978"><ele>413.5</ele><time>2026-03-31T11:23:51Z</time></trkpt><trkpt lat="42.24980990047088" lon="-1.3257000877382168"><ele>415.0</ele><time>2026-03-31T11:23:52Z</time></trkpt><trkpt lat="42.25011509540565" lon="-1.3256435615771838"><ele>415.0</ele><time>2026-03-31T11:23:53Z</time></trkpt><trkpt lat="42.25042416152145" lon="-1.3255859202040576"><ele>415.0</ele><time>2026-03-31T11:23:54Z</time></trkpt><trkpt lat="42.25074324409667" lon="-1.3255422517183137"><ele>415.0</ele><time>2026-03-31T11:23:55Z</time></trkpt><trkpt lat="42.25105690790878" lon="-1.3254898018894066"><ele>415.0</ele><time>2026-03-31T11:23:56Z</time></trkpt><trkpt lat="42.25136926392144" lon="-1.3254327446262444"><ele>415.5</ele><time>2026-03-31T11:23:57Z</time></trkpt><trkpt lat="42.25168026543244" lon="-1.3253759880165854"><ele>416.0</ele><time>2026-03-31T11:23:58Z</time></trkpt><trkpt lat="42.25198938221756" lon="-1.3253220891306736"><ele>416.5</ele><time>2026-03-31T11:23:59Z</time></trkpt><trkpt lat="42.252295883082745" lon="-1.3252664549443696"><ele>417.0</ele><time>2026-03-31T11:24:00Z</time></trkpt><trkpt lat="42.252607000215356" lon="-1.3252119518867942"><ele>417.0</ele><time>2026-03-31T11:24:01Z</time></trkpt><trkpt lat="42.25292148953529" lon="-1.325159822042913"><ele>417.0</ele><time>2026-03-31T11:24:02Z</time></trkpt><trkpt lat="42.25323808621287" lon="-1.325103823493124"><ele>416.5</ele><time>2026-03-31T11:24:03Z</time></trkpt><trkpt lat="42.253558452416044" lon="-1.32504760039356"><ele>416.0</ele><time>2026-03-31T11:24:04Z</time></trkpt><trkpt lat="42.25388596008699" lon="-1.3249956574448707"><ele>416.5</ele><time>2026-03-31T11:24:05Z</time></trkpt><trkpt lat="42.25419756997234" lon="-1.3249457223745358"><ele>417.0</ele><time>2026-03-31T11:24:06Z</time></trkpt><trkpt lat="42.254517351899686" lon="-1.3248933350318588"><ele>417.0</ele><time>2026-03-31T11:24:07Z</time></trkpt><trkpt lat="42.25484363881177" lon="-1.324844966260631"><ele>417.0</ele><time>2026-03-31T11:24:08Z</time></trkpt><trkpt lat="42.25517225246385" lon="-1.3248026696371433"><ele>417.0</ele><time>2026-03-31T11:24:09Z</time></trkpt><trkpt lat="42.25542410251683" lon="-1.324749170842192"><ele>417.0</ele><time>2026-03-31T11:24:10Z</time></trkpt><trkpt lat="42.25571084844976" lon="-1.3246917342339541"><ele>418.0</ele><time>2026-03-31T11:24:11Z</time></trkpt><trkpt lat="42.25599505035891" lon="-1.3246459187303212"><ele>419.0</ele><time>2026-03-31T11:24:12Z</time></trkpt><trkpt lat="42.25628460499658" lon="-1.3246090489862"><ele>419.5</ele><time>2026-03-31T11:24:13Z</time></trkpt><trkpt lat="42.256570503358965" lon="-1.32455932151027"><ele>420.0</ele><time>2026-03-31T11:24:14Z</time></trkpt><trkpt lat="42.25685677728856" lon="-1.3245126565772236"><ele>420.0</ele><time>2026-03-31T11:24:15Z</time></trkpt><trkpt lat="42.257148866459296" lon="-1.324474215874552"><ele>420.0</ele><time>2026-03-31T11:24:16Z</time></trkpt><trkpt lat="42.2574390957171" lon="-1.3244323231643658"><ele>420.0</ele><time>2026-03-31T11:24:17Z</time></trkpt><trkpt lat="42.25772944012106" lon="-1.324397212656886"><ele>420.0</ele><time>2026-03-31T11:24:18Z</time></trkpt><trkpt lat="42.25802017902201" lon="-1.3243709246995434"><ele>421.5</ele><time>2026-03-31T11:24:19Z</time></trkpt><trkpt lat="42.25831714063166" lon="-1.3243639773658804"><ele>423.0</ele><time>2026-03-31T11:24:20Z</time></trkpt><trkpt lat="42.2586106096918" lon="-1.3243569457390219"><ele>423.0</ele><time>2026-03-31T11:24:21Z</time></trkpt><trkpt lat="42.25890708468139" lon="-1.3243616836135885"><ele>423.0</ele><time>2026-03-31T11:24:22Z</time></trkpt><trkpt lat="42.25920125042295" lon="-1.3243679002896147"><ele>423.0</ele><time>2026-03-31T11:24:23Z</time></trkpt><trkpt lat="42.25949794142944" lon="-1.3243836860338136"><ele>423.0</ele><time>2026-03-31T11:24:24Z</time></trkpt><trkpt lat="42.25979784209546" lon="-1.324399572768457"><ele>423.0</ele><time>2026-03-31T11:24:25Z</time></trkpt><trkpt lat="42.26009696105527" lon="-1.3244096991820047"><ele>423.0</ele><time>2026-03-31T11:24:26Z</time></trkpt><trkpt lat="42.260398049134324" lon="-1.324421160336866"><ele>423.5</ele><time>2026-03-31T11:24:27Z</time></trkpt><trkpt lat="42.26069810979867" lon="-1.3244329131768937"><ele>424.0</ele><time>2026-03-31T11:24:28Z</time></trkpt><trkpt lat="42.26099517018395" lon="-1.3244413016277463"><ele>424.0</ele><time>2026-03-31T11:24:29Z</time></trkpt><trkpt lat="42.26129144228585" lon="-1.324445580847571"><ele>424.0</ele><time>2026-03-31T11:24:30Z</time></trkpt><trkpt lat="42.26158589238073" lon="-1.3244562074790285"><ele>425.5</ele><time>2026-03-31T11:24:31Z</time></trkpt><trkpt lat="42.26187603071321" lon="-1.3244702149831937"><ele>427.0</ele><time>2026-03-31T11:24:32Z</time></trkpt><trkpt lat="42.262167347651705" lon="-1.3244781699277737"><ele>427.0</ele><time>2026-03-31T11:24:33Z</time></trkpt><trkpt lat="42.262455187903704" lon="-1.3244886717139626"><ele>427.0</ele><time>2026-03-31T11:24:34Z</time></trkpt><trkpt lat="42.26274366837772" lon="-1.324495661893261"><ele>427.0</ele><time>2026-03-31T11:24:35Z</time></trkpt><trkpt lat="42.26303015416487" lon="-1.3245005206272182"><ele>427.0</ele><time>2026-03-31T11:24:36Z</time></trkpt><trkpt lat="42.263317218644936" lon="-1.3245104909709244"><ele>427.0</ele><time>2026-03-31T11:24:37Z</time></trkpt><trkpt lat="42.26359691903856" lon="-1.3245256857399175"><ele>427.0</ele><time>2026-03-31T11:24:38Z</time></trkpt><trkpt lat="42.263871818764045" lon="-1.3245359641303618"><ele>427.5</ele><time>2026-03-31T11:24:39Z</time></trkpt><trkpt lat="42.26414499156953" lon="-1.3245436811298472"><ele>428.0</ele><time>2026-03-31T11:24:40Z</time></trkpt><trkpt lat="42.264417157081645" lon="-1.3245512818238117"><ele>428.0</ele><time>2026-03-31T11:24:41Z</time></trkpt><trkpt lat="42.26469148411877" lon="-1.3245604920000251"><ele>428.0</ele><time>2026-03-31T11:24:42Z</time></trkpt><trkpt lat="42.2649694432323" lon="-1.324573469730858"><ele>428.5</ele><time>2026-03-31T11:24:43Z</time></trkpt><trkpt lat="42.265252457356254" lon="-1.3245894186786287"><ele>429.0</ele><time>2026-03-31T11:24:44Z</time></trkpt><trkpt lat="42.26554038103855" lon="-1.3245980530302017"><ele>429.0</ele><time>2026-03-31T11:24:45Z</time></trkpt><trkpt lat="42.26582664188962" lon="-1.3246025623790327"><ele>429.0</ele><time>2026-03-31T11:24:46Z</time></trkpt><trkpt lat="42.266117429048634" lon="-1.324610766847072"><ele>429.0</ele><time>2026-03-31T11:24:47Z</time></trkpt><trkpt lat="42.26640394656956" lon="-1.324624889090183"><ele>429.0</ele><time>2026-03-31T11:24:48Z</time></trkpt><trkpt lat="42.266697042080246" lon="-1.3246371359566118"><ele>428.5</ele><time>2026-03-31T11:24:49Z</time></trkpt><trkpt lat="42.266990979152766" lon="-1.3246468664687028"><ele>428.0</ele><time>2026-03-31T11:24:50Z</time></trkpt><trkpt lat="42.267287883972244" lon="-1.3246548690186266"><ele>425.5</ele><time>2026-03-31T11:24:51Z</time></trkpt><trkpt lat="42.267595241261006" lon="-1.3246668295066453"><ele>423.0</ele><time>2026-03-31T11:24:52Z</time></trkpt><trkpt lat="42.26790491622539" lon="-1.3246780366893895"><ele>419.5</ele><time>2026-03-31T11:24:53Z</time></trkpt><trkpt lat="42.26821495873837" lon="-1.3246856612779532"><ele>416.0</ele><time>2026-03-31T11:24:54Z</time></trkpt><trkpt lat="42.268525923718954" lon="-1.3246941738049056"><ele>416.0</ele><time>2026-03-31T11:24:55Z</time></trkpt><trkpt lat="42.268837738902775" lon="-1.3247110309997785"><ele>416.0</ele><time>2026-03-31T11:24:56Z</time></trkpt><trkpt lat="42.269147740002225" lon="-1.3247220625470497"><ele>411.0</ele><time>2026-03-31T11:24:57Z</time></trkpt><trkpt lat="42.26945256458464" lon="-1.3247303885841801"><ele>406.0</ele><time>2026-03-31T11:24:58Z</time></trkpt><trkpt lat="42.26975661567215" lon="-1.3247366495721171"><ele>403.5</ele><time>2026-03-31T11:24:59Z</time></trkpt><trkpt lat="42.27005913836445" lon="-1.3247539962813668"><ele>401.0</ele><time>2026-03-31T11:25:00Z</time></trkpt><trkpt lat="42.27037527897751" lon="-1.3247614439880713"><ele>400.5</ele><time>2026-03-31T11:25:01Z</time></trkpt><trkpt lat="42.2706781823174" lon="-1.3247731290986393"><ele>400.0</ele><time>2026-03-31T11:25:02Z</time></trkpt><trkpt lat="42.27098346074761" lon="-1.3247818197526915"><ele>400.0</ele><time>2026-03-31T11:25:03Z</time></trkpt><trkpt lat="42.271290306925216" lon="-1.3247907613982206"><ele>400.0</ele><time>2026-03-31T11:25:04Z</time></trkpt><trkpt lat="42.271597817725436" lon="-1.324800235499133"><ele>398.5</ele><time>2026-03-31T11:25:05Z</time></trkpt><trkpt lat="42.271903561110264" lon="-1.3248097967838017"><ele>397.0</ele><time>2026-03-31T11:25:06Z</time></trkpt><trkpt lat="42.272205416279114" lon="-1.3248174010021112"><ele>395.0</ele><time>2026-03-31T11:25:07Z</time></trkpt><trkpt lat="42.2725000601542" lon="-1.3248306071573652"><ele>393.0</ele><time>2026-03-31T11:25:08Z</time></trkpt><trkpt lat="42.27278713192358" lon="-1.324843515823243"><ele>393.0</ele><time>2026-03-31T11:25:09Z</time></trkpt><trkpt lat="42.273064236623576" lon="-1.3248566588743982"><ele>393.0</ele><time>2026-03-31T11:25:10Z</time></trkpt><trkpt lat="42.2733360679647" lon="-1.3248674394606237"><ele>393.0</ele><time>2026-03-31T11:25:11Z</time></trkpt><trkpt lat="42.273610286679144" lon="-1.324870327852816"><ele>393.0</ele><time>2026-03-31T11:25:12Z</time></trkpt><trkpt lat="42.273883923797115" lon="-1.3248756931330508"><ele>392.0</ele><time>2026-03-31T11:25:13Z</time></trkpt><trkpt lat="42.27415669974142" lon="-1.3248866788416365"><ele>391.0</ele><time>2026-03-31T11:25:14Z</time></trkpt><trkpt lat="42.2744365511676" lon="-1.3249004546669372"><ele>391.0</ele><time>2026-03-31T11:25:15Z</time></trkpt><trkpt lat="42.274712364888046" lon="-1.3249053116397014"><ele>391.0</ele><time>2026-03-31T11:25:16Z</time></trkpt><trkpt lat="42.27498222153" lon="-1.324912666124947"><ele>391.0</ele><time>2026-03-31T11:25:17Z</time></trkpt><trkpt lat="42.27524916323768" lon="-1.3249236728218556"><ele>391.0</ele><time>2026-03-31T11:25:18Z</time></trkpt><trkpt lat="42.27551294240982" lon="-1.3249338317110944"><ele>391.5</ele><time>2026-03-31T11:25:19Z</time></trkpt><trkpt lat="42.27577703487507" lon="-1.324944765088869"><ele>392.0</ele><time>2026-03-31T11:25:20Z</time></trkpt><trkpt lat="42.27604242838725" lon="-1.324953893097496"><ele>392.0</ele><time>2026-03-31T11:25:21Z</time></trkpt><trkpt lat="42.27630755616734" lon="-1.3249621352129648"><ele>392.0</ele><time>2026-03-31T11:25:22Z</time></trkpt><trkpt lat="42.27658062356052" lon="-1.324968512774646"><ele>391.0</ele><time>2026-03-31T11:25:23Z</time></trkpt><trkpt lat="42.27685956539953" lon="-1.3249778603411961"><ele>390.0</ele><time>2026-03-31T11:25:24Z</time></trkpt><trkpt lat="42.27713796090921" lon="-1.324992546995209"><ele>390.0</ele><time>2026-03-31T11:25:25Z</time></trkpt><trkpt lat="42.27741159804207" lon="-1.3250029101274405"><ele>390.0</ele><time>2026-03-31T11:25:26Z</time></trkpt><trkpt lat="42.277685995533325" lon="-1.3250144597325848"><ele>390.0</ele><time>2026-03-31T11:25:27Z</time></trkpt><trkpt lat="42.27796047207894" lon="-1.3250268442999071"><ele>390.0</ele><time>2026-03-31T11:25:28Z</time></trkpt><trkpt lat="42.278230591370416" lon="-1.3250321248632149"><ele>390.0</ele><time>2026-03-31T11:25:29Z</time></trkpt><trkpt lat="42.278502975672964" lon="-1.3250337783396735"><ele>390.0</ele><time>2026-03-31T11:25:30Z</time></trkpt><trkpt lat="42.2787706619567" lon="-1.3250403389193177"><ele>391.0</ele><time>2026-03-31T11:25:31Z</time></trkpt><trkpt lat="42.27903686182617" lon="-1.3250502806360591"><ele>392.0</ele><time>2026-03-31T11:25:32Z</time></trkpt><trkpt lat="42.27930085502374" lon="-1.325065167050251"><ele>392.0</ele><time>2026-03-31T11:25:33Z</time></trkpt><trkpt lat="42.279568757643275" lon="-1.325071731285612"><ele>392.0</ele><time>2026-03-31T11:25:34Z</time></trkpt><trkpt lat="42.27983283154531" lon="-1.3250809166247484"><ele>391.5</ele><time>2026-03-31T11:25:35Z</time></trkpt><trkpt lat="42.28009753871187" lon="-1.3250848761825944"><ele>391.0</ele><time>2026-03-31T11:25:36Z</time></trkpt><trkpt lat="42.28036293746395" lon="-1.3250883935413822"><ele>393.0</ele><time>2026-03-31T11:25:37Z</time></trkpt><trkpt lat="42.28062560506482" lon="-1.3250982057749348"><ele>395.0</ele><time>2026-03-31T11:25:38Z</time></trkpt><trkpt lat="42.28088411848055" lon="-1.3251115808764438"><ele>395.0</ele><time>2026-03-31T11:25:39Z</time></trkpt><trkpt lat="42.281142374186096" lon="-1.3251232266956872"><ele>395.0</ele><time>2026-03-31T11:25:40Z</time></trkpt><trkpt lat="42.28139950178643" lon="-1.3251344172348078"><ele>394.5</ele><time>2026-03-31T11:25:41Z</time></trkpt><trkpt lat="42.28165801513318" lon="-1.3251477769827824"><ele>394.0</ele><time>2026-03-31T11:25:42Z</time></trkpt><trkpt lat="42.281914802371325" lon="-1.3251553818289754"><ele>394.0</ele><time>2026-03-31T11:25:43Z</time></trkpt><trkpt lat="42.28218127424783" lon="-1.3251653072857303"><ele>394.0</ele><time>2026-03-31T11:25:44Z</time></trkpt><trkpt lat="42.28244648907591" lon="-1.3251751084550014"><ele>395.5</ele><time>2026-03-31T11:25:45Z</time></trkpt><trkpt lat="42.282713117973444" lon="-1.325183796429795"><ele>397.0</ele><time>2026-03-31T11:25:46Z</time></trkpt><trkpt lat="42.282975404950214" lon="-1.3251890020694885"><ele>398.5</ele><time>2026-03-31T11:25:47Z</time></trkpt><trkpt lat="42.283238172635436" lon="-1.3251920014722414"><ele>400.0</ele><time>2026-03-31T11:25:48Z</time></trkpt><trkpt lat="42.283499433105945" lon="-1.3251968671898293"><ele>400.0</ele><time>2026-03-31T11:25:49Z</time></trkpt><trkpt lat="42.28376142716161" lon="-1.3252049535583976"><ele>400.0</ele><time>2026-03-31T11:25:50Z</time></trkpt><trkpt lat="42.284017515815385" lon="-1.3252131449464863"><ele>401.0</ele><time>2026-03-31T11:25:51Z</time></trkpt><trkpt lat="42.284276455062546" lon="-1.3252247167418019"><ele>402.0</ele><time>2026-03-31T11:25:52Z</time></trkpt><trkpt lat="42.28453302893525" lon="-1.3252351646818803"><ele>400.5</ele><time>2026-03-31T11:25:53Z</time></trkpt><trkpt lat="42.28478888121123" lon="-1.325247542295862"><ele>399.0</ele><time>2026-03-31T11:25:54Z</time></trkpt><trkpt lat="42.28504074304185" lon="-1.325256819526469"><ele>399.0</ele><time>2026-03-31T11:25:55Z</time></trkpt><trkpt lat="42.28529464992261" lon="-1.3252649194520465"><ele>399.0</ele><time>2026-03-31T11:25:56Z</time></trkpt><trkpt lat="42.28555221695629" lon="-1.325274543436662"><ele>397.0</ele><time>2026-03-31T11:25:57Z</time></trkpt><trkpt lat="42.28581051704212" lon="-1.3252864285424983"><ele>395.0</ele><time>2026-03-31T11:25:58Z</time></trkpt><trkpt lat="42.28607254594257" lon="-1.325296727145089"><ele>395.0</ele><time>2026-03-31T11:25:59Z</time></trkpt><trkpt lat="42.28633553164917" lon="-1.3253048956538258"><ele>395.0</ele><time>2026-03-31T11:26:00Z</time></trkpt><trkpt lat="42.28660438962399" lon="-1.3253133248614466"><ele>395.5</ele><time>2026-03-31T11:26:01Z</time></trkpt><trkpt lat="42.286869053225054" lon="-1.3253254311101936"><ele>396.0</ele><time>2026-03-31T11:26:02Z</time></trkpt><trkpt lat="42.287133977455916" lon="-1.3253339563633506"><ele>396.0</ele><time>2026-03-31T11:26:03Z</time></trkpt><trkpt lat="42.287396656564674" lon="-1.3253457296212958"><ele>396.0</ele><time>2026-03-31T11:26:04Z</time></trkpt><trkpt lat="42.287664497757085" lon="-1.3253580947912618"><ele>396.0</ele><time>2026-03-31T11:26:05Z</time></trkpt><trkpt lat="42.28793216292723" lon="-1.3253644854662139"><ele>396.0</ele><time>2026-03-31T11:26:06Z</time></trkpt><trkpt lat="42.28820068668524" lon="-1.3253686224581394"><ele>398.0</ele><time>2026-03-31T11:26:07Z</time></trkpt><trkpt lat="42.28846504475543" lon="-1.3253715139967908"><ele>400.0</ele><time>2026-03-31T11:26:08Z</time></trkpt><trkpt lat="42.28871964949167" lon="-1.3253794359884954"><ele>400.0</ele><time>2026-03-31T11:26:09Z</time></trkpt><trkpt lat="42.2889723490132" lon="-1.3253924494527531"><ele>400.0</ele><time>2026-03-31T11:26:10Z</time></trkpt><trkpt lat="42.28921506113903" lon="-1.325401280546532"><ele>400.0</ele><time>2026-03-31T11:26:11Z</time></trkpt><trkpt lat="42.28944274002349" lon="-1.3254097202193669"><ele>400.0</ele><time>2026-03-31T11:26:12Z</time></trkpt><trkpt lat="42.28964893785047" lon="-1.3254176588773046"><ele>400.0</ele><time>2026-03-31T11:26:13Z</time></trkpt><trkpt lat="42.2898385957348" lon="-1.3254244766097691"><ele>400.5</ele><time>2026-03-31T11:26:14Z</time></trkpt><trkpt lat="42.2900089113448" lon="-1.325429455886365"><ele>401.0</ele><time>2026-03-31T11:26:15Z</time></trkpt><trkpt lat="42.29015991040133" lon="-1.3254301098214345"><ele>401.5</ele><time>2026-03-31T11:26:16Z</time></trkpt><trkpt lat="42.290280052982496" lon="-1.3254263575711471"><ele>402.0</ele><time>2026-03-31T11:26:17Z</time></trkpt><trkpt lat="42.29037852607064" lon="-1.3254143203545505"><ele>402.0</ele><time>2026-03-31T11:26:18Z</time></trkpt><trkpt lat="42.290445324944564" lon="-1.3253895275549812"><ele>402.0</ele><time>2026-03-31T11:26:19Z</time></trkpt><trkpt lat="42.290528861107916" lon="-1.3253548324651712"><ele>402.0</ele><time>2026-03-31T11:26:23Z</time></trkpt><trkpt lat="42.29062010093044" lon="-1.325547694709911"><ele>402.0</ele><time>2026-03-31T11:26:24Z</time></trkpt><trkpt lat="42.29069218518796" lon="-1.325740793161283"><ele>403.33333333333337</ele><time>2026-03-31T11:26:25Z</time></trkpt><trkpt lat="42.29077210505111" lon="-1.3259392283868718"><ele>404.6666666666667</ele><time>2026-03-31T11:26:26Z</time></trkpt><trkpt lat="42.290887451767524" lon="-1.3261627058337475"><ele>406.0</ele><time>2026-03-31T11:26:27Z</time></trkpt><trkpt lat="42.29101571464111" lon="-1.3263890012262898"><ele>408.0</ele><time>2026-03-31T11:26:28Z</time></trkpt><trkpt lat="42.2911624732618" lon="-1.326627044251899"><ele>410.0</ele><time>2026-03-31T11:26:29Z</time></trkpt><trkpt lat="42.29131157350605" lon="-1.3268511576103523"><ele>410.0</ele><time>2026-03-31T11:26:30Z</time></trkpt><trkpt lat="42.29146256895237" lon="-1.3270642869510694"><ele>410.0</ele><time>2026-03-31T11:26:31Z</time></trkpt><trkpt lat="42.291615751995174" lon="-1.3272801759077513"><ele>410.0</ele><time>2026-03-31T11:26:32Z</time></trkpt><trkpt lat="42.29176740300703" lon="-1.3275011183859478"><ele>411.5</ele><time>2026-03-31T11:26:33Z</time></trkpt><trkpt lat="42.29192136758106" lon="-1.3277288192043177"><ele>413.0</ele><time>2026-03-31T11:26:34Z</time></trkpt><trkpt lat="42.29207100900683" lon="-1.3279615560659699"><ele>411.5</ele><time>2026-03-31T11:26:35Z</time></trkpt><trkpt lat="42.29223118544964" lon="-1.3281977707178692"><ele>410.0</ele><time>2026-03-31T11:26:36Z</time></trkpt><trkpt lat="42.29239097772226" lon="-1.3284351826771252"><ele>410.0</ele><time>2026-03-31T11:26:37Z</time></trkpt><trkpt lat="42.29255275745336" lon="-1.328668918745391"><ele>410.0</ele><time>2026-03-31T11:26:38Z</time></trkpt><trkpt lat="42.2927175017884" lon="-1.3288981146075218"><ele>410.5</ele><time>2026-03-31T11:26:39Z</time></trkpt><trkpt lat="42.29288925231213" lon="-1.3291339064345045"><ele>411.0</ele><time>2026-03-31T11:26:40Z</time></trkpt><trkpt lat="42.29305364816668" lon="-1.3293796182583832"><ele>411.0</ele><time>2026-03-31T11:26:41Z</time></trkpt><trkpt lat="42.29321709965791" lon="-1.32962099480759"><ele>411.0</ele><time>2026-03-31T11:26:42Z</time></trkpt><trkpt lat="42.293374317763494" lon="-1.3298517673375072"><ele>411.0</ele><time>2026-03-31T11:26:43Z</time></trkpt><trkpt lat="42.29353212786056" lon="-1.3300820128482505"><ele>411.0</ele><time>2026-03-31T11:26:44Z</time></trkpt><trkpt lat="42.293695123153825" lon="-1.330313032422288"><ele>411.0</ele><time>2026-03-31T11:26:45Z</time></trkpt><trkpt lat="42.29386452481242" lon="-1.3305484741633973"><ele>411.0</ele><time>2026-03-31T11:26:46Z</time></trkpt><trkpt lat="42.2940077088432" lon="-1.3307760760843164"><ele>411.0</ele><time>2026-03-31T11:26:47Z</time></trkpt><trkpt lat="42.29417208841258" lon="-1.3310074831025929"><ele>411.0</ele><time>2026-03-31T11:26:48Z</time></trkpt><trkpt lat="42.29433535676344" lon="-1.3312415715730759"><ele>412.5</ele><time>2026-03-31T11:26:49Z</time></trkpt><trkpt lat="42.29450871975735" lon="-1.3314850956212054"><ele>414.0</ele><time>2026-03-31T11:26:50Z</time></trkpt><trkpt lat="42.294687332891826" lon="-1.3317335912133672"><ele>413.33333333333337</ele><time>2026-03-31T11:26:51Z</time></trkpt><trkpt lat="42.294823301008336" lon="-1.331935415045724"><ele>412.6666666666667</ele><time>2026-03-31T11:26:52Z</time></trkpt><trkpt lat="42.29497213529601" lon="-1.3321947577526727"><ele>412.0</ele><time>2026-03-31T11:26:53Z</time></trkpt><trkpt lat="42.29511595865433" lon="-1.332465816817324"><ele>412.0</ele><time>2026-03-31T11:26:54Z</time></trkpt><trkpt lat="42.29526301601624" lon="-1.3327365976348586"><ele>412.0</ele><time>2026-03-31T11:26:55Z</time></trkpt><trkpt lat="42.295403166689006" lon="-1.3330173245599188"><ele>411.0</ele><time>2026-03-31T11:26:56Z</time></trkpt><trkpt lat="42.29553765676208" lon="-1.3333048879265543"><ele>410.0</ele><time>2026-03-31T11:26:57Z</time></trkpt><trkpt lat="42.295677668496424" lon="-1.3335978329968086"><ele>409.0</ele><time>2026-03-31T11:26:58Z</time></trkpt><trkpt lat="42.29581150380222" lon="-1.3339040755467915"><ele>408.0</ele><time>2026-03-31T11:26:59Z</time></trkpt><trkpt lat="42.29593616261301" lon="-1.3342242602073404"><ele>408.0</ele><time>2026-03-31T11:27:00Z</time></trkpt><trkpt lat="42.29604856695435" lon="-1.334549952186419"><ele>408.0</ele><time>2026-03-31T11:27:01Z</time></trkpt><trkpt lat="42.29616295200285" lon="-1.3348786482179391"><ele>405.5</ele><time>2026-03-31T11:27:02Z</time></trkpt><trkpt lat="42.29627279983042" lon="-1.3352122040824337"><ele>403.0</ele><time>2026-03-31T11:27:03Z</time></trkpt><trkpt lat="42.29637022377095" lon="-1.3355547267470345"><ele>402.0</ele><time>2026-03-31T11:27:04Z</time></trkpt><trkpt lat="42.296460941563026" lon="-1.3359021482278315"><ele>401.0</ele><time>2026-03-31T11:27:05Z</time></trkpt><trkpt lat="42.296553338752865" lon="-1.3362430282760873"><ele>398.0</ele><time>2026-03-31T11:27:06Z</time></trkpt><trkpt lat="42.29663234175436" lon="-1.3365867684515649"><ele>395.0</ele><time>2026-03-31T11:27:07Z</time></trkpt><trkpt lat="42.29669524951458" lon="-1.3369352487699488"><ele>393.0</ele><time>2026-03-31T11:27:08Z</time></trkpt><trkpt lat="42.296753739160785" lon="-1.3372802048105796"><ele>391.0</ele><time>2026-03-31T11:27:09Z</time></trkpt><trkpt lat="42.296805901372934" lon="-1.3376234352780483"><ele>391.0</ele><time>2026-03-31T11:27:10Z</time></trkpt><trkpt lat="42.29685718969636" lon="-1.3379682575713583"><ele>391.0</ele><time>2026-03-31T11:27:11Z</time></trkpt><trkpt lat="42.29689917277277" lon="-1.3383187065934672"><ele>389.5</ele><time>2026-03-31T11:27:12Z</time></trkpt><trkpt lat="42.296928610489154" lon="-1.3386660381907922"><ele>388.0</ele><time>2026-03-31T11:27:13Z</time></trkpt><trkpt lat="42.29694469373847" lon="-1.3390099080840727"><ele>387.5</ele><time>2026-03-31T11:27:14Z</time></trkpt><trkpt lat="42.2969642749024" lon="-1.3393449590261324"><ele>387.0</ele><time>2026-03-31T11:27:15Z</time></trkpt><trkpt lat="42.29698919759685" lon="-1.3396912828259506"><ele>387.5</ele><time>2026-03-31T11:27:16Z</time></trkpt><trkpt lat="42.297018406201786" lon="-1.340031602958021"><ele>388.0</ele><time>2026-03-31T11:27:17Z</time></trkpt><trkpt lat="42.297057142057305" lon="-1.3403722141544478"><ele>387.0</ele><time>2026-03-31T11:27:18Z</time></trkpt><trkpt lat="42.29710462933988" lon="-1.3407186200553605"><ele>386.0</ele><time>2026-03-31T11:27:19Z</time></trkpt><trkpt lat="42.29716884810114" lon="-1.3410495592212166"><ele>386.0</ele><time>2026-03-31T11:27:20Z</time></trkpt><trkpt lat="42.29725004101384" lon="-1.3413794310712974"><ele>386.0</ele><time>2026-03-31T11:27:21Z</time></trkpt><trkpt lat="42.297348142475016" lon="-1.341691034684018"><ele>385.0</ele><time>2026-03-31T11:27:22Z</time></trkpt><trkpt lat="42.29745514279515" lon="-1.3420109762328565"><ele>384.0</ele><time>2026-03-31T11:27:23Z</time></trkpt><trkpt lat="42.29756306678493" lon="-1.3423277233643256"><ele>383.0</ele><time>2026-03-31T11:27:24Z</time></trkpt><trkpt lat="42.29768018184697" lon="-1.342632702313575"><ele>382.0</ele><time>2026-03-31T11:27:25Z</time></trkpt><trkpt lat="42.29779670174059" lon="-1.3429270535082563"><ele>382.0</ele><time>2026-03-31T11:27:26Z</time></trkpt><trkpt lat="42.297904282668156" lon="-1.3432235958523835"><ele>382.0</ele><time>2026-03-31T11:27:27Z</time></trkpt><trkpt lat="42.298011160453875" lon="-1.3435065436970648"><ele>382.0</ele><time>2026-03-31T11:27:28Z</time></trkpt><trkpt lat="42.29812359261555" lon="-1.3437828448150355"><ele>382.0</ele><time>2026-03-31T11:27:29Z</time></trkpt><trkpt lat="42.29823751772766" lon="-1.3440748443962658"><ele>381.0</ele><time>2026-03-31T11:27:30Z</time></trkpt><trkpt lat="42.29834492322697" lon="-1.3443662417325855"><ele>380.0</ele><time>2026-03-31T11:27:31Z</time></trkpt><trkpt lat="42.298457333285114" lon="-1.3446574423271167"><ele>381.0</ele><time>2026-03-31T11:27:32Z</time></trkpt><trkpt lat="42.29858444863014" lon="-1.3449325554328349"><ele>382.0</ele><time>2026-03-31T11:27:33Z</time></trkpt><trkpt lat="42.29872514199191" lon="-1.3451933825119857"><ele>382.0</ele><time>2026-03-31T11:27:34Z</time></trkpt><trkpt lat="42.298874895569" lon="-1.3454381827777135"><ele>382.0</ele><time>2026-03-31T11:27:35Z</time></trkpt><trkpt lat="42.2990420743049" lon="-1.3456863594258828"><ele>382.5</ele><time>2026-03-31T11:27:36Z</time></trkpt><trkpt lat="42.299224555374295" lon="-1.3459068895265824"><ele>383.0</ele><time>2026-03-31T11:27:37Z</time></trkpt><trkpt lat="42.299419263733505" lon="-1.346116035510301"><ele>383.0</ele><time>2026-03-31T11:27:38Z</time></trkpt><trkpt lat="42.29962349135398" lon="-1.346321885204691"><ele>383.0</ele><time>2026-03-31T11:27:39Z</time></trkpt><trkpt lat="42.299826666094624" lon="-1.3465101466340141"><ele>384.0</ele><time>2026-03-31T11:27:40Z</time></trkpt><trkpt lat="42.3000308968202" lon="-1.3467025016714482"><ele>385.0</ele><time>2026-03-31T11:27:41Z</time></trkpt><trkpt lat="42.30024224154858" lon="-1.3468916890878426"><ele>385.0</ele><time>2026-03-31T11:27:42Z</time></trkpt><trkpt lat="42.3004499169121" lon="-1.347067584283638"><ele>385.0</ele><time>2026-03-31T11:27:43Z</time></trkpt><trkpt lat="42.30065590654654" lon="-1.3472545618686924"><ele>384.0</ele><time>2026-03-31T11:27:44Z</time></trkpt><trkpt lat="42.30086318620269" lon="-1.3474460614380346"><ele>383.0</ele><time>2026-03-31T11:27:45Z</time></trkpt><trkpt lat="42.30106441433554" lon="-1.3476278900583059"><ele>383.0</ele><time>2026-03-31T11:27:46Z</time></trkpt><trkpt lat="42.301261173539174" lon="-1.347811393810143"><ele>383.0</ele><time>2026-03-31T11:27:47Z</time></trkpt><trkpt lat="42.3014544217355" lon="-1.3480005661831074"><ele>383.5</ele><time>2026-03-31T11:27:48Z</time></trkpt><trkpt lat="42.30164467570937" lon="-1.3482048631197263"><ele>384.0</ele><time>2026-03-31T11:27:49Z</time></trkpt><trkpt lat="42.30182799917265" lon="-1.3484267613000969"><ele>384.0</ele><time>2026-03-31T11:27:50Z</time></trkpt><trkpt lat="42.30200895038862" lon="-1.3486672684324825"><ele>384.0</ele><time>2026-03-31T11:27:51Z</time></trkpt><trkpt lat="42.30218992935481" lon="-1.3489209960242887"><ele>385.0</ele><time>2026-03-31T11:27:52Z</time></trkpt><trkpt lat="42.30236068436416" lon="-1.3491834302321004"><ele>386.0</ele><time>2026-03-31T11:27:53Z</time></trkpt><trkpt lat="42.30252107799966" lon="-1.3494563483273931"><ele>385.0</ele><time>2026-03-31T11:27:54Z</time></trkpt><trkpt lat="42.302680370487145" lon="-1.349728615999148"><ele>384.0</ele><time>2026-03-31T11:27:55Z</time></trkpt><trkpt lat="42.30284175528574" lon="-1.349999444867302"><ele>384.0</ele><time>2026-03-31T11:27:56Z</time></trkpt><trkpt lat="42.30300301300216" lon="-1.3502815005079336"><ele>384.0</ele><time>2026-03-31T11:27:57Z</time></trkpt><trkpt lat="42.303162097617104" lon="-1.3505600516958916"><ele>384.0</ele><time>2026-03-31T11:27:58Z</time></trkpt><trkpt lat="42.30333035697097" lon="-1.3508315598114293"><ele>384.0</ele><time>2026-03-31T11:27:59Z</time></trkpt><trkpt lat="42.303498045087615" lon="-1.3511021310580886"><ele>385.5</ele><time>2026-03-31T11:28:00Z</time></trkpt><trkpt lat="42.30366281257715" lon="-1.3513763599015638"><ele>387.0</ele><time>2026-03-31T11:28:01Z</time></trkpt><trkpt lat="42.30383304889652" lon="-1.351658141021985"><ele>385.5</ele><time>2026-03-31T11:28:02Z</time></trkpt><trkpt lat="42.303998227082865" lon="-1.3519348207493211"><ele>384.0</ele><time>2026-03-31T11:28:03Z</time></trkpt><trkpt lat="42.304161167077005" lon="-1.3522190767816977"><ele>383.5</ele><time>2026-03-31T11:28:04Z</time></trkpt><trkpt lat="42.304321153290864" lon="-1.352495806745105"><ele>383.0</ele><time>2026-03-31T11:28:05Z</time></trkpt><trkpt lat="42.30448428463682" lon="-1.3527816592647937"><ele>384.0</ele><time>2026-03-31T11:28:06Z</time></trkpt><trkpt lat="42.30463857555413" lon="-1.3530646931101176"><ele>385.0</ele><time>2026-03-31T11:28:07Z</time></trkpt><trkpt lat="42.30478552727996" lon="-1.353351302645266"><ele>385.5</ele><time>2026-03-31T11:28:08Z</time></trkpt><trkpt lat="42.30492280361532" lon="-1.3536219770910463"><ele>386.0</ele><time>2026-03-31T11:28:09Z</time></trkpt><trkpt lat="42.30506401660377" lon="-1.3538800842907535"><ele>387.5</ele><time>2026-03-31T11:28:10Z</time></trkpt><trkpt lat="42.305197085299724" lon="-1.3541353552159727"><ele>389.0</ele><time>2026-03-31T11:28:11Z</time></trkpt><trkpt lat="42.305323041685895" lon="-1.3543853625145639"><ele>389.0</ele><time>2026-03-31T11:28:12Z</time></trkpt><trkpt lat="42.305454232480855" lon="-1.3546314550731826"><ele>389.0</ele><time>2026-03-31T11:28:13Z</time></trkpt><trkpt lat="42.305594837377086" lon="-1.3548938326862312"><ele>390.5</ele><time>2026-03-31T11:28:14Z</time></trkpt><trkpt lat="42.30574336565253" lon="-1.355140765352329"><ele>392.0</ele><time>2026-03-31T11:28:15Z</time></trkpt><trkpt lat="42.30589800617213" lon="-1.355371955594474"><ele>393.5</ele><time>2026-03-31T11:28:16Z</time></trkpt><trkpt lat="42.306060631596516" lon="-1.3555859935060468"><ele>395.0</ele><time>2026-03-31T11:28:17Z</time></trkpt><trkpt lat="42.30623348267619" lon="-1.3557871795053926"><ele>394.0</ele><time>2026-03-31T11:28:18Z</time></trkpt><trkpt lat="42.306414633640635" lon="-1.3559762315159987"><ele>393.0</ele><time>2026-03-31T11:28:19Z</time></trkpt><trkpt lat="42.306603968313276" lon="-1.3561592681336732"><ele>393.0</ele><time>2026-03-31T11:28:20Z</time></trkpt><trkpt lat="42.30680325454816" lon="-1.3563358405896002"><ele>393.0</ele><time>2026-03-31T11:28:21Z</time></trkpt><trkpt lat="42.30700875532483" lon="-1.3565050500638884"><ele>391.5</ele><time>2026-03-31T11:28:22Z</time></trkpt><trkpt lat="42.30721346695513" lon="-1.3566666457732377"><ele>390.0</ele><time>2026-03-31T11:28:23Z</time></trkpt><trkpt lat="42.3074298539064" lon="-1.3568113089575082"><ele>388.0</ele><time>2026-03-31T11:28:24Z</time></trkpt><trkpt lat="42.30765691911108" lon="-1.3569405101726815"><ele>386.0</ele><time>2026-03-31T11:28:25Z</time></trkpt><trkpt lat="42.30788027492158" lon="-1.3570733011601273"><ele>386.5</ele><time>2026-03-31T11:28:26Z</time></trkpt><trkpt lat="42.30810654068729" lon="-1.3572150621916192"><ele>387.0</ele><time>2026-03-31T11:28:27Z</time></trkpt><trkpt lat="42.30833543219101" lon="-1.3573584849907838"><ele>387.0</ele><time>2026-03-31T11:28:28Z</time></trkpt><trkpt lat="42.30856541692423" lon="-1.3575156943760447"><ele>387.0</ele><time>2026-03-31T11:28:29Z</time></trkpt><trkpt lat="42.308782382961574" lon="-1.3576894749897315"><ele>386.5</ele><time>2026-03-31T11:28:30Z</time></trkpt><trkpt lat="42.308997106930505" lon="-1.357884042165495"><ele>386.0</ele><time>2026-03-31T11:28:31Z</time></trkpt><trkpt lat="42.30920252482448" lon="-1.3580839585018307"><ele>386.0</ele><time>2026-03-31T11:28:32Z</time></trkpt><trkpt lat="42.309405296611864" lon="-1.3582959430038977"><ele>386.0</ele><time>2026-03-31T11:28:33Z</time></trkpt><trkpt lat="42.30960662286435" lon="-1.3585173236871215"><ele>384.0</ele><time>2026-03-31T11:28:34Z</time></trkpt><trkpt lat="42.309809169805575" lon="-1.358745994112152"><ele>382.0</ele><time>2026-03-31T11:28:35Z</time></trkpt><trkpt lat="42.31000660545444" lon="-1.358972880262498"><ele>382.0</ele><time>2026-03-31T11:28:36Z</time></trkpt><trkpt lat="42.31020493587198" lon="-1.359199040008066"><ele>382.0</ele><time>2026-03-31T11:28:37Z</time></trkpt><trkpt lat="42.310408533246495" lon="-1.3594139858921392"><ele>382.0</ele><time>2026-03-31T11:28:38Z</time></trkpt><trkpt lat="42.31060556868946" lon="-1.3596355240376952"><ele>382.0</ele><time>2026-03-31T11:28:39Z</time></trkpt><trkpt lat="42.31079788181669" lon="-1.3598766629672194"><ele>383.0</ele><time>2026-03-31T11:28:40Z</time></trkpt><trkpt lat="42.31100336679039" lon="-1.3601021188228262"><ele>384.0</ele><time>2026-03-31T11:28:41Z</time></trkpt><trkpt lat="42.31121728870883" lon="-1.3603038277829156"><ele>385.0</ele><time>2026-03-31T11:28:42Z</time></trkpt><trkpt lat="42.311426052063865" lon="-1.3605106753219443"><ele>386.0</ele><time>2026-03-31T11:28:43Z</time></trkpt><trkpt lat="42.311626798324056" lon="-1.3607189188235465"><ele>386.5</ele><time>2026-03-31T11:28:44Z</time></trkpt><trkpt lat="42.31182897536357" lon="-1.3609067734012503"><ele>387.0</ele><time>2026-03-31T11:28:45Z</time></trkpt><trkpt lat="42.31203053870906" lon="-1.361087508383773"><ele>387.0</ele><time>2026-03-31T11:28:46Z</time></trkpt><trkpt lat="42.31223360818583" lon="-1.3612658832275288"><ele>387.0</ele><time>2026-03-31T11:28:47Z</time></trkpt><trkpt lat="42.31244027935214" lon="-1.3614380078208432"><ele>384.0</ele><time>2026-03-31T11:28:48Z</time></trkpt><trkpt lat="42.31264555994515" lon="-1.361602450203365"><ele>381.0</ele><time>2026-03-31T11:28:49Z</time></trkpt><trkpt lat="42.31285184927081" lon="-1.3617700723609056"><ele>381.0</ele><time>2026-03-31T11:28:50Z</time></trkpt><trkpt lat="42.31305955719049" lon="-1.3619519713341297"><ele>381.0</ele><time>2026-03-31T11:28:51Z</time></trkpt><trkpt lat="42.31326397223027" lon="-1.3621410091352995"><ele>380.0</ele><time>2026-03-31T11:28:52Z</time></trkpt><trkpt lat="42.31345783775282" lon="-1.362348865450648"><ele>379.0</ele><time>2026-03-31T11:28:53Z</time></trkpt><trkpt lat="42.31363945649369" lon="-1.3625802661741104"><ele>379.0</ele><time>2026-03-31T11:28:54Z</time></trkpt><trkpt lat="42.3138115283726" lon="-1.3628297811630923"><ele>379.0</ele><time>2026-03-31T11:28:55Z</time></trkpt><trkpt lat="42.3139753160763" lon="-1.3630781425398237"><ele>379.5</ele><time>2026-03-31T11:28:56Z</time></trkpt><trkpt lat="42.31413275650183" lon="-1.36333817444601"><ele>380.0</ele><time>2026-03-31T11:28:57Z</time></trkpt><trkpt lat="42.31428454447336" lon="-1.3636065490555345"><ele>379.5</ele><time>2026-03-31T11:28:58Z</time></trkpt><trkpt lat="42.314417557167424" lon="-1.3638936512885842"><ele>379.0</ele><time>2026-03-31T11:28:59Z</time></trkpt><trkpt lat="42.314539897325965" lon="-1.3641958546917734"><ele>379.0</ele><time>2026-03-31T11:29:00Z</time></trkpt><trkpt lat="42.31465546853547" lon="-1.3645051550934055"><ele>379.0</ele><time>2026-03-31T11:29:01Z</time></trkpt><trkpt lat="42.314760613175345" lon="-1.3648180561574497"><ele>377.0</ele><time>2026-03-31T11:29:02Z</time></trkpt><trkpt lat="42.3148706601944" lon="-1.3651343313896396"><ele>375.0</ele><time>2026-03-31T11:29:03Z</time></trkpt><trkpt lat="42.31498294579408" lon="-1.3654449820281034"><ele>373.5</ele><time>2026-03-31T11:29:04Z</time></trkpt><trkpt lat="42.31510077415319" lon="-1.3657507749633702"><ele>372.0</ele><time>2026-03-31T11:29:05Z</time></trkpt><trkpt lat="42.31521615271453" lon="-1.3660754509465645"><ele>372.5</ele><time>2026-03-31T11:29:06Z</time></trkpt><trkpt lat="42.315329985602524" lon="-1.366419827741083"><ele>373.0</ele><time>2026-03-31T11:29:07Z</time></trkpt><trkpt lat="42.31544914925428" lon="-1.3667532630211667"><ele>373.0</ele><time>2026-03-31T11:29:08Z</time></trkpt><trkpt lat="42.31556580406369" lon="-1.3670823600523414"><ele>373.0</ele><time>2026-03-31T11:29:09Z</time></trkpt><trkpt lat="42.315686495158104" lon="-1.3674147281379934"><ele>372.5</ele><time>2026-03-31T11:29:10Z</time></trkpt><trkpt lat="42.31581254120158" lon="-1.367741735818592"><ele>372.0</ele><time>2026-03-31T11:29:11Z</time></trkpt><trkpt lat="42.31593335080921" lon="-1.368075833814895"><ele>373.0</ele><time>2026-03-31T11:29:12Z</time></trkpt><trkpt lat="42.316053135638185" lon="-1.3684079210968814"><ele>374.0</ele><time>2026-03-31T11:29:13Z</time></trkpt><trkpt lat="42.31617570552579" lon="-1.3687401597655666"><ele>373.0</ele><time>2026-03-31T11:29:14Z</time></trkpt><trkpt lat="42.31629494484713" lon="-1.3690707153229036"><ele>372.0</ele><time>2026-03-31T11:29:15Z</time></trkpt><trkpt lat="42.31640879564251" lon="-1.3693991286034293"><ele>372.5</ele><time>2026-03-31T11:29:16Z</time></trkpt><trkpt lat="42.31652206371087" lon="-1.3697100231841015"><ele>373.0</ele><time>2026-03-31T11:29:17Z</time></trkpt><trkpt lat="42.316641454953306" lon="-1.3700180570436398"><ele>373.0</ele><time>2026-03-31T11:29:18Z</time></trkpt><trkpt lat="42.31675629915481" lon="-1.3703342593161898"><ele>373.0</ele><time>2026-03-31T11:29:19Z</time></trkpt><trkpt lat="42.31686741361879" lon="-1.3706438189778298"><ele>372.5</ele><time>2026-03-31T11:29:20Z</time></trkpt><trkpt lat="42.31697933003919" lon="-1.3709574173347645"><ele>372.0</ele><time>2026-03-31T11:29:21Z</time></trkpt><trkpt lat="42.317091658925754" lon="-1.3712841438906003"><ele>372.0</ele><time>2026-03-31T11:29:22Z</time></trkpt><trkpt lat="42.31721115318185" lon="-1.3715987489131842"><ele>372.0</ele><time>2026-03-31T11:29:23Z</time></trkpt><trkpt lat="42.3173336058119" lon="-1.371915605271262"><ele>372.0</ele><time>2026-03-31T11:29:24Z</time></trkpt><trkpt lat="42.31745198184017" lon="-1.3722392245703787"><ele>372.0</ele><time>2026-03-31T11:29:25Z</time></trkpt><trkpt lat="42.31757116579173" lon="-1.3725605620954802"><ele>372.0</ele><time>2026-03-31T11:29:26Z</time></trkpt><trkpt lat="42.31769346666374" lon="-1.372879680779318"><ele>372.0</ele><time>2026-03-31T11:29:27Z</time></trkpt><trkpt lat="42.31781255068374" lon="-1.373199665253751"><ele>372.5</ele><time>2026-03-31T11:29:28Z</time></trkpt><trkpt lat="42.317950177359386" lon="-1.3735156878171026"><ele>373.0</ele><time>2026-03-31T11:29:29Z</time></trkpt><trkpt lat="42.31811303427538" lon="-1.3738190437108218"><ele>372.0</ele><time>2026-03-31T11:29:30Z</time></trkpt><trkpt lat="42.31826848191808" lon="-1.3741217672616644"><ele>371.0</ele><time>2026-03-31T11:29:31Z</time></trkpt><trkpt lat="42.31847738439464" lon="-1.3743982895753175"><ele>371.5</ele><time>2026-03-31T11:29:32Z</time></trkpt><trkpt lat="42.31865030677491" lon="-1.3747071996838658"><ele>372.0</ele><time>2026-03-31T11:29:33Z</time></trkpt><trkpt lat="42.3188226785575" lon="-1.3750124162741792"><ele>372.5</ele><time>2026-03-31T11:29:34Z</time></trkpt><trkpt lat="42.319004180123066" lon="-1.3753130692013795"><ele>373.0</ele><time>2026-03-31T11:29:35Z</time></trkpt><trkpt lat="42.31918271459576" lon="-1.3756233481657612"><ele>373.0</ele><time>2026-03-31T11:29:36Z</time></trkpt><trkpt lat="42.31936199375935" lon="-1.375936149817851"><ele>373.0</ele><time>2026-03-31T11:29:37Z</time></trkpt><trkpt lat="42.31953889917706" lon="-1.3762441805271086"><ele>373.5</ele><time>2026-03-31T11:29:38Z</time></trkpt><trkpt lat="42.31971468615445" lon="-1.3765479150566275"><ele>374.0</ele><time>2026-03-31T11:29:39Z</time></trkpt><trkpt lat="42.31989055024204" lon="-1.3768402495789804"><ele>374.0</ele><time>2026-03-31T11:29:40Z</time></trkpt><trkpt lat="42.32007340628607" lon="-1.3771513515388643"><ele>374.0</ele><time>2026-03-31T11:29:41Z</time></trkpt><trkpt lat="42.32024806820344" lon="-1.377459424326274"><ele>374.5</ele><time>2026-03-31T11:29:42Z</time></trkpt><trkpt lat="42.32042709719779" lon="-1.3777637043475746"><ele>375.0</ele><time>2026-03-31T11:29:43Z</time></trkpt><trkpt lat="42.32060720094117" lon="-1.3780670621165747"><ele>375.5</ele><time>2026-03-31T11:29:44Z</time></trkpt><trkpt lat="42.320778845945874" lon="-1.3783590016309688"><ele>376.0</ele><time>2026-03-31T11:29:45Z</time></trkpt><trkpt lat="42.32093312155965" lon="-1.37862567634045"><ele>376.0</ele><time>2026-03-31T11:29:46Z</time></trkpt><trkpt lat="42.32107864679283" lon="-1.3788792038562434"><ele>376.0</ele><time>2026-03-31T11:29:47Z</time></trkpt><trkpt lat="42.321231687009586" lon="-1.3791216275401377"><ele>375.0</ele><time>2026-03-31T11:29:48Z</time></trkpt><trkpt lat="42.321399151998584" lon="-1.3793692871166172"><ele>374.0</ele><time>2026-03-31T11:29:49Z</time></trkpt><trkpt lat="42.321576902006356" lon="-1.3796178460050204"><ele>373.0</ele><time>2026-03-31T11:29:50Z</time></trkpt><trkpt lat="42.32175952604239" lon="-1.37985855789625"><ele>372.0</ele><time>2026-03-31T11:29:51Z</time></trkpt><trkpt lat="42.32193966055872" lon="-1.3800974611774872"><ele>372.0</ele><time>2026-03-31T11:29:52Z</time></trkpt><trkpt lat="42.32212057149205" lon="-1.380342477730965"><ele>372.0</ele><time>2026-03-31T11:29:53Z</time></trkpt><trkpt lat="42.322293901135396" lon="-1.3805875321082037"><ele>372.0</ele><time>2026-03-31T11:29:54Z</time></trkpt><trkpt lat="42.32247490674857" lon="-1.380836208754115"><ele>372.0</ele><time>2026-03-31T11:29:55Z</time></trkpt><trkpt lat="42.322653761090685" lon="-1.3810840806135587"><ele>372.0</ele><time>2026-03-31T11:29:56Z</time></trkpt><trkpt lat="42.32283240471807" lon="-1.381333731018581"><ele>372.0</ele><time>2026-03-31T11:29:57Z</time></trkpt><trkpt lat="42.323012500427296" lon="-1.3815712553734745"><ele>371.5</ele><time>2026-03-31T11:29:58Z</time></trkpt><trkpt lat="42.323196434087265" lon="-1.3818285191230568"><ele>371.0</ele><time>2026-03-31T11:29:59Z</time></trkpt><trkpt lat="42.323378501225676" lon="-1.3820735114957399"><ele>371.0</ele><time>2026-03-31T11:30:00Z</time></trkpt><trkpt lat="42.3235569435365" lon="-1.3823177565175182"><ele>371.0</ele><time>2026-03-31T11:30:01Z</time></trkpt><trkpt lat="42.32373041526572" lon="-1.38256087665443"><ele>371.0</ele><time>2026-03-31T11:30:02Z</time></trkpt><trkpt lat="42.323903160935934" lon="-1.3828009158567127"><ele>371.0</ele><time>2026-03-31T11:30:03Z</time></trkpt><trkpt lat="42.32407621657779" lon="-1.383042176095117"><ele>371.0</ele><time>2026-03-31T11:30:04Z</time></trkpt><trkpt lat="42.324249723430704" lon="-1.3832777075161458"><ele>371.0</ele><time>2026-03-31T11:30:05Z</time></trkpt><trkpt lat="42.32441993492599" lon="-1.3835144668424137"><ele>371.0</ele><time>2026-03-31T11:30:06Z</time></trkpt><trkpt lat="42.32458941762329" lon="-1.3837464831052835"><ele>371.0</ele><time>2026-03-31T11:30:07Z</time></trkpt><trkpt lat="42.324761278322036" lon="-1.3839745480312045"><ele>370.0</ele><time>2026-03-31T11:30:08Z</time></trkpt><trkpt lat="42.32492932998768" lon="-1.3842079322410792"><ele>369.0</ele><time>2026-03-31T11:30:09Z</time></trkpt><trkpt lat="42.32509935914283" lon="-1.3844411208368077"><ele>369.0</ele><time>2026-03-31T11:30:10Z</time></trkpt><trkpt lat="42.325271717216374" lon="-1.3846771563186298"><ele>369.0</ele><time>2026-03-31T11:30:11Z</time></trkpt><trkpt lat="42.32544170459914" lon="-1.3849146927277185"><ele>369.0</ele><time>2026-03-31T11:30:12Z</time></trkpt><trkpt lat="42.32561243901794" lon="-1.3851535049048436"><ele>369.0</ele><time>2026-03-31T11:30:13Z</time></trkpt><trkpt lat="42.32578407487427" lon="-1.3853916769685255"><ele>369.0</ele><time>2026-03-31T11:30:14Z</time></trkpt><trkpt lat="42.3259619210866" lon="-1.3856357173931362"><ele>369.0</ele><time>2026-03-31T11:30:15Z</time></trkpt><trkpt lat="42.32614330210178" lon="-1.38587803541384"><ele>369.0</ele><time>2026-03-31T11:30:16Z</time></trkpt><trkpt lat="42.32632039730434" lon="-1.3861170334023964"><ele>369.0</ele><time>2026-03-31T11:30:17Z</time></trkpt><trkpt lat="42.326499899089164" lon="-1.3863644502329333"><ele>369.5</ele><time>2026-03-31T11:30:18Z</time></trkpt><trkpt lat="42.326682005483086" lon="-1.3866142054753692"><ele>370.0</ele><time>2026-03-31T11:30:19Z</time></trkpt><trkpt lat="42.32686821822384" lon="-1.3868622197512772"><ele>370.0</ele><time>2026-03-31T11:30:20Z</time></trkpt><trkpt lat="42.32703897228348" lon="-1.387106155481051"><ele>370.0</ele><time>2026-03-31T11:30:21Z</time></trkpt><trkpt lat="42.32722184377564" lon="-1.3873618609658667"><ele>369.0</ele><time>2026-03-31T11:30:22Z</time></trkpt><trkpt lat="42.327407672419284" lon="-1.3876151648238073"><ele>368.0</ele><time>2026-03-31T11:30:23Z</time></trkpt><trkpt lat="42.32759502902069" lon="-1.3878699949549502"><ele>368.5</ele><time>2026-03-31T11:30:24Z</time></trkpt><trkpt lat="42.32778408563623" lon="-1.3881258322971064"><ele>369.0</ele><time>2026-03-31T11:30:25Z</time></trkpt><trkpt lat="42.32797320652212" lon="-1.3883777780055986"><ele>368.5</ele><time>2026-03-31T11:30:26Z</time></trkpt><trkpt lat="42.32815951744417" lon="-1.3886331069584426"><ele>368.0</ele><time>2026-03-31T11:30:27Z</time></trkpt><trkpt lat="42.32834237196027" lon="-1.3888965415258847"><ele>368.0</ele><time>2026-03-31T11:30:28Z</time></trkpt><trkpt lat="42.32853508929914" lon="-1.3891401292745138"><ele>368.0</ele><time>2026-03-31T11:30:29Z</time></trkpt><trkpt lat="42.32872361019769" lon="-1.3893951389229409"><ele>368.5</ele><time>2026-03-31T11:30:30Z</time></trkpt><trkpt lat="42.32890624504507" lon="-1.3896558467013558"><ele>369.0</ele><time>2026-03-31T11:30:31Z</time></trkpt><trkpt lat="42.329095459166005" lon="-1.3899116043607256"><ele>369.0</ele><time>2026-03-31T11:30:32Z</time></trkpt><trkpt lat="42.32928431366087" lon="-1.3901744979697375"><ele>369.0</ele><time>2026-03-31T11:30:33Z</time></trkpt><trkpt lat="42.32947525595733" lon="-1.3904413031287324"><ele>369.0</ele><time>2026-03-31T11:30:34Z</time></trkpt><trkpt lat="42.32966584372087" lon="-1.390703822850874"><ele>369.0</ele><time>2026-03-31T11:30:35Z</time></trkpt><trkpt lat="42.329854221027155" lon="-1.3909636102727956"><ele>369.0</ele><time>2026-03-31T11:30:36Z</time></trkpt><trkpt lat="42.33003589809063" lon="-1.3912264003373744"><ele>369.0</ele><time>2026-03-31T11:30:37Z</time></trkpt><trkpt lat="42.33022368434976" lon="-1.3914838895438415"><ele>370.0</ele><time>2026-03-31T11:30:38Z</time></trkpt><trkpt lat="42.330407776384405" lon="-1.3917339286622215"><ele>371.0</ele><time>2026-03-31T11:30:39Z</time></trkpt><trkpt lat="42.33059051047625" lon="-1.3919781951606098"><ele>370.5</ele><time>2026-03-31T11:30:40Z</time></trkpt><trkpt lat="42.330771100411354" lon="-1.3922155108593282"><ele>370.0</ele><time>2026-03-31T11:30:41Z</time></trkpt><trkpt lat="42.33094443215318" lon="-1.392456102396975"><ele>370.0</ele><time>2026-03-31T11:30:42Z</time></trkpt><trkpt lat="42.33110862459503" lon="-1.3926872772042098"><ele>370.0</ele><time>2026-03-31T11:30:43Z</time></trkpt><trkpt lat="42.33127300317047" lon="-1.39292554676463"><ele>372.0</ele><time>2026-03-31T11:30:44Z</time></trkpt><trkpt lat="42.331435782966615" lon="-1.3931457074415945"><ele>374.0</ele><time>2026-03-31T11:30:45Z</time></trkpt><trkpt lat="42.331601754727444" lon="-1.3933533797812057"><ele>374.0</ele><time>2026-03-31T11:30:46Z</time></trkpt><trkpt lat="42.33175642133068" lon="-1.3935650535832795"><ele>374.0</ele><time>2026-03-31T11:30:47Z</time></trkpt><trkpt lat="42.33190148778643" lon="-1.3937729454869432"><ele>374.0</ele><time>2026-03-31T11:30:48Z</time></trkpt><trkpt lat="42.33204840289001" lon="-1.3939835699367291"><ele>375.0</ele><time>2026-03-31T11:30:49Z</time></trkpt><trkpt lat="42.33219326355826" lon="-1.3941895784838814"><ele>376.0</ele><time>2026-03-31T11:30:50Z</time></trkpt><trkpt lat="42.33233159880951" lon="-1.3943757638737186"><ele>377.0</ele><time>2026-03-31T11:30:51Z</time></trkpt><trkpt lat="42.33245715311104" lon="-1.3945555547381"><ele>374.6666666666667</ele><time>2026-03-31T11:30:52Z</time></trkpt><trkpt lat="42.33258433353205" lon="-1.3947397352022124"><ele>372.3333333333333</ele><time>2026-03-31T11:30:53Z</time></trkpt><trkpt lat="42.332739719478724" lon="-1.394922375924238"><ele>370.0</ele><time>2026-03-31T11:30:54Z</time></trkpt><trkpt lat="42.33290930843465" lon="-1.395154420130146"><ele>368.5</ele><time>2026-03-31T11:30:55Z</time></trkpt><trkpt lat="42.33309126078906" lon="-1.3954026917885092"><ele>367.0</ele><time>2026-03-31T11:30:56Z</time></trkpt><trkpt lat="42.33328380859274" lon="-1.3956663341467943"><ele>367.0</ele><time>2026-03-31T11:30:57Z</time></trkpt><trkpt lat="42.33348075911832" lon="-1.3959361671567552"><ele>367.0</ele><time>2026-03-31T11:30:58Z</time></trkpt><trkpt lat="42.33366349578824" lon="-1.3962062630609582"><ele>367.0</ele><time>2026-03-31T11:30:59Z</time></trkpt><trkpt lat="42.33385479441318" lon="-1.396452684206961"><ele>367.0</ele><time>2026-03-31T11:31:00Z</time></trkpt><trkpt lat="42.33404222163749" lon="-1.396712853110178"><ele>367.0</ele><time>2026-03-31T11:31:01Z</time></trkpt><trkpt lat="42.33422656506105" lon="-1.3969699787081027"><ele>367.0</ele><time>2026-03-31T11:31:02Z</time></trkpt><trkpt lat="42.33441210622286" lon="-1.3972170578242051"><ele>367.0</ele><time>2026-03-31T11:31:03Z</time></trkpt><trkpt lat="42.33459489163203" lon="-1.3974600182374217"><ele>367.0</ele><time>2026-03-31T11:31:04Z</time></trkpt><trkpt lat="42.334774552482905" lon="-1.397706304895825"><ele>366.5</ele><time>2026-03-31T11:31:05Z</time></trkpt><trkpt lat="42.33495554119146" lon="-1.3979640045467465"><ele>366.0</ele><time>2026-03-31T11:31:06Z</time></trkpt><trkpt lat="42.3351382042482" lon="-1.3982117474148499"><ele>366.0</ele><time>2026-03-31T11:31:07Z</time></trkpt><trkpt lat="42.335325557901264" lon="-1.3984689489916415"><ele>366.0</ele><time>2026-03-31T11:31:08Z</time></trkpt><trkpt lat="42.33551138630503" lon="-1.3987271392736258"><ele>366.0</ele><time>2026-03-31T11:31:09Z</time></trkpt><trkpt lat="42.33570060829706" lon="-1.39898455368609"><ele>366.0</ele><time>2026-03-31T11:31:10Z</time></trkpt><trkpt lat="42.3358913192331" lon="-1.399241971806739"><ele>366.0</ele><time>2026-03-31T11:31:11Z</time></trkpt><trkpt lat="42.336090534719816" lon="-1.3995115828835303"><ele>366.0</ele><time>2026-03-31T11:31:12Z</time></trkpt><trkpt lat="42.33629386477627" lon="-1.3997905421068286"><ele>367.0</ele><time>2026-03-31T11:31:13Z</time></trkpt><trkpt lat="42.33649811176553" lon="-1.4000714792095812"><ele>368.0</ele><time>2026-03-31T11:31:14Z</time></trkpt><trkpt lat="42.336693120457156" lon="-1.4003359616745101"><ele>370.0</ele><time>2026-03-31T11:31:15Z</time></trkpt><trkpt lat="42.336875700031904" lon="-1.4005908915576362"><ele>372.0</ele><time>2026-03-31T11:31:16Z</time></trkpt><trkpt lat="42.33705241863056" lon="-1.4008394322264062"><ele>371.5</ele><time>2026-03-31T11:31:17Z</time></trkpt><trkpt lat="42.33723717344076" lon="-1.4010999569382447"><ele>371.0</ele><time>2026-03-31T11:31:18Z</time></trkpt><trkpt lat="42.337413515172855" lon="-1.4013373656517911"><ele>371.0</ele><time>2026-03-31T11:31:19Z</time></trkpt><trkpt lat="42.337576269808956" lon="-1.4015579624287304"><ele>371.0</ele><time>2026-03-31T11:31:20Z</time></trkpt><trkpt lat="42.33773574603102" lon="-1.4017837720745179"><ele>371.0</ele><time>2026-03-31T11:31:21Z</time></trkpt><trkpt lat="42.33789874479622" lon="-1.4020063280761923"><ele>371.0</ele><time>2026-03-31T11:31:22Z</time></trkpt><trkpt lat="42.338068497355295" lon="-1.4022360572419235"><ele>372.0</ele><time>2026-03-31T11:31:23Z</time></trkpt><trkpt lat="42.33824640034461" lon="-1.4024784929739322"><ele>373.0</ele><time>2026-03-31T11:31:24Z</time></trkpt><trkpt lat="42.33842114068523" lon="-1.4027152042550104"><ele>373.0</ele><time>2026-03-31T11:31:25Z</time></trkpt><trkpt lat="42.33859423025661" lon="-1.4029438036607305"><ele>373.0</ele><time>2026-03-31T11:31:26Z</time></trkpt><trkpt lat="42.33876922187514" lon="-1.4031940256852335"><ele>374.0</ele><time>2026-03-31T11:31:27Z</time></trkpt><trkpt lat="42.338928859392716" lon="-1.4034719128827995"><ele>375.0</ele><time>2026-03-31T11:31:28Z</time></trkpt><trkpt lat="42.33908002370164" lon="-1.4037602346623876"><ele>374.5</ele><time>2026-03-31T11:31:29Z</time></trkpt><trkpt lat="42.339224985823044" lon="-1.4040481704218795"><ele>374.0</ele><time>2026-03-31T11:31:30Z</time></trkpt><trkpt lat="42.33936579542379" lon="-1.4043409912977454"><ele>374.0</ele><time>2026-03-31T11:31:31Z</time></trkpt><trkpt lat="42.33950314856527" lon="-1.4046442853247005"><ele>374.0</ele><time>2026-03-31T11:31:32Z</time></trkpt><trkpt lat="42.33963327047734" lon="-1.4049529778132124"><ele>373.5</ele><time>2026-03-31T11:31:33Z</time></trkpt><trkpt lat="42.339766927848714" lon="-1.4052588229113652"><ele>373.0</ele><time>2026-03-31T11:31:34Z</time></trkpt><trkpt lat="42.33990632015622" lon="-1.4055693665737086"><ele>371.5</ele><time>2026-03-31T11:31:35Z</time></trkpt><trkpt lat="42.340042641879315" lon="-1.4058810800793413"><ele>370.0</ele><time>2026-03-31T11:31:36Z</time></trkpt><trkpt lat="42.34017856917432" lon="-1.4061924609519034"><ele>370.5</ele><time>2026-03-31T11:31:37Z</time></trkpt><trkpt lat="42.340317885724076" lon="-1.4064950532933762"><ele>371.0</ele><time>2026-03-31T11:31:38Z</time></trkpt><trkpt lat="42.340451483604824" lon="-1.4067955497220177"><ele>371.0</ele><time>2026-03-31T11:31:39Z</time></trkpt><trkpt lat="42.34058487523487" lon="-1.407097619099472"><ele>371.0</ele><time>2026-03-31T11:31:40Z</time></trkpt><trkpt lat="42.340723949459424" lon="-1.4074032179506073"><ele>373.5</ele><time>2026-03-31T11:31:41Z</time></trkpt><trkpt lat="42.34085757802948" lon="-1.4077071189103532"><ele>376.0</ele><time>2026-03-31T11:31:42Z</time></trkpt><trkpt lat="42.34098855223742" lon="-1.4080100800341908"><ele>377.5</ele><time>2026-03-31T11:31:43Z</time></trkpt><trkpt lat="42.341116415262746" lon="-1.4082968059732235"><ele>379.0</ele><time>2026-03-31T11:31:44Z</time></trkpt><trkpt lat="42.34124234247018" lon="-1.4085803652590247"><ele>379.5</ele><time>2026-03-31T11:31:45Z</time></trkpt><trkpt lat="42.34136795466423" lon="-1.40886775312726"><ele>380.0</ele><time>2026-03-31T11:31:46Z</time></trkpt><trkpt lat="42.341492538853764" lon="-1.4091635901097188"><ele>380.0</ele><time>2026-03-31T11:31:47Z</time></trkpt><trkpt lat="42.34162480180058" lon="-1.4094629762485136"><ele>380.0</ele><time>2026-03-31T11:31:48Z</time></trkpt><trkpt lat="42.341761481834496" lon="-1.409756994446627"><ele>381.0</ele><time>2026-03-31T11:31:49Z</time></trkpt><trkpt lat="42.341900814490835" lon="-1.4100600394556584"><ele>382.0</ele><time>2026-03-31T11:31:50Z</time></trkpt><trkpt lat="42.342033227046336" lon="-1.410353576457523"><ele>382.5</ele><time>2026-03-31T11:31:51Z</time></trkpt><trkpt lat="42.34217560033354" lon="-1.4106366848178256"><ele>383.0</ele><time>2026-03-31T11:31:52Z</time></trkpt><trkpt lat="42.34232795029688" lon="-1.4109262526536386"><ele>381.5</ele><time>2026-03-31T11:31:53Z</time></trkpt><trkpt lat="42.34248431881994" lon="-1.4112160500400923"><ele>380.0</ele><time>2026-03-31T11:31:54Z</time></trkpt><trkpt lat="42.34264794699072" lon="-1.4114927874610632"><ele>379.5</ele><time>2026-03-31T11:31:55Z</time></trkpt><trkpt lat="42.342811198300474" lon="-1.4117751428011005"><ele>379.0</ele><time>2026-03-31T11:31:56Z</time></trkpt><trkpt lat="42.342973775855086" lon="-1.4120570418313234"><ele>374.0</ele><time>2026-03-31T11:31:57Z</time></trkpt><trkpt lat="42.3431341036739" lon="-1.41233250108119"><ele>369.0</ele><time>2026-03-31T11:31:58Z</time></trkpt><trkpt lat="42.343299434625976" lon="-1.4126076413877473"><ele>369.0</ele><time>2026-03-31T11:31:59Z</time></trkpt><trkpt lat="42.343461185826996" lon="-1.4128847330296748"><ele>369.0</ele><time>2026-03-31T11:32:00Z</time></trkpt><trkpt lat="42.343622579877916" lon="-1.413165459967227"><ele>369.0</ele><time>2026-03-31T11:32:01Z</time></trkpt><trkpt lat="42.343786876873715" lon="-1.4134421769804286"><ele>369.0</ele><time>2026-03-31T11:32:02Z</time></trkpt><trkpt lat="42.34395146257003" lon="-1.4137260967742729"><ele>366.5</ele><time>2026-03-31T11:32:03Z</time></trkpt><trkpt lat="42.344116899099376" lon="-1.414010792383215"><ele>364.0</ele><time>2026-03-31T11:32:04Z</time></trkpt><trkpt lat="42.3442762756194" lon="-1.4142895543061875"><ele>364.0</ele><time>2026-03-31T11:32:05Z</time></trkpt><trkpt lat="42.344434416594055" lon="-1.4145624045057819"><ele>364.0</ele><time>2026-03-31T11:32:06Z</time></trkpt><trkpt lat="42.34459186326056" lon="-1.4148259940527275"><ele>361.5</ele><time>2026-03-31T11:32:07Z</time></trkpt><trkpt lat="42.344742737085454" lon="-1.4150816466796563"><ele>359.0</ele><time>2026-03-31T11:32:08Z</time></trkpt><trkpt lat="42.34489816863532" lon="-1.4153478773373511"><ele>359.5</ele><time>2026-03-31T11:32:09Z</time></trkpt><trkpt lat="42.34505365219725" lon="-1.4156122207544881"><ele>360.0</ele><time>2026-03-31T11:32:10Z</time></trkpt><trkpt lat="42.3452118359855" lon="-1.4158838805775213"><ele>360.0</ele><time>2026-03-31T11:32:11Z</time></trkpt><trkpt lat="42.34536753605031" lon="-1.4161533367611976"><ele>360.0</ele><time>2026-03-31T11:32:12Z</time></trkpt><trkpt lat="42.34552150278093" lon="-1.4164303094208635"><ele>357.5</ele><time>2026-03-31T11:32:13Z</time></trkpt><trkpt lat="42.34566967715659" lon="-1.4166948513033426"><ele>355.0</ele><time>2026-03-31T11:32:14Z</time></trkpt><trkpt lat="42.34582880995322" lon="-1.4169652040132072"><ele>355.0</ele><time>2026-03-31T11:32:15Z</time></trkpt><trkpt lat="42.34598991734824" lon="-1.417235429248235"><ele>355.0</ele><time>2026-03-31T11:32:16Z</time></trkpt><trkpt lat="42.346146463571266" lon="-1.41750827560238"><ele>355.0</ele><time>2026-03-31T11:32:17Z</time></trkpt><trkpt lat="42.346305182395355" lon="-1.4177850265176188"><ele>355.0</ele><time>2026-03-31T11:32:18Z</time></trkpt><trkpt lat="42.34646074144379" lon="-1.4180514544120715"><ele>356.0</ele><time>2026-03-31T11:32:19Z</time></trkpt><trkpt lat="42.34661740947294" lon="-1.418324006792952"><ele>357.0</ele><time>2026-03-31T11:32:20Z</time></trkpt><trkpt lat="42.34677790127246" lon="-1.4186115146174756"><ele>356.5</ele><time>2026-03-31T11:32:21Z</time></trkpt><trkpt lat="42.346946811164415" lon="-1.4189015718959845"><ele>356.0</ele><time>2026-03-31T11:32:22Z</time></trkpt><trkpt lat="42.34712516339442" lon="-1.419196716551271"><ele>357.0</ele><time>2026-03-31T11:32:23Z</time></trkpt><trkpt lat="42.34730054761763" lon="-1.4194969241661572"><ele>358.0</ele><time>2026-03-31T11:32:24Z</time></trkpt><trkpt lat="42.34747494731322" lon="-1.4198035468982084"><ele>358.5</ele><time>2026-03-31T11:32:25Z</time></trkpt><trkpt lat="42.34765321863939" lon="-1.4201044029713144"><ele>359.0</ele><time>2026-03-31T11:32:26Z</time></trkpt><trkpt lat="42.34783069666649" lon="-1.4204009179395582"><ele>358.5</ele><time>2026-03-31T11:32:27Z</time></trkpt><trkpt lat="42.348005404424754" lon="-1.4206997573191917"><ele>358.0</ele><time>2026-03-31T11:32:28Z</time></trkpt><trkpt lat="42.34817823031289" lon="-1.420999448798242"><ele>358.0</ele><time>2026-03-31T11:32:29Z</time></trkpt><trkpt lat="42.34834866931228" lon="-1.4213010698884256"><ele>358.0</ele><time>2026-03-31T11:32:30Z</time></trkpt><trkpt lat="42.34851681582497" lon="-1.4215944549218031"><ele>358.5</ele><time>2026-03-31T11:32:31Z</time></trkpt><trkpt lat="42.34869168694596" lon="-1.4218795786987228"><ele>359.0</ele><time>2026-03-31T11:32:32Z</time></trkpt><trkpt lat="42.34886396182974" lon="-1.4221671362619208"><ele>357.0</ele><time>2026-03-31T11:32:33Z</time></trkpt><trkpt lat="42.349035492094934" lon="-1.4224704693496586"><ele>355.0</ele><time>2026-03-31T11:32:34Z</time></trkpt><trkpt lat="42.34920749266751" lon="-1.4227684255859716"><ele>354.5</ele><time>2026-03-31T11:32:35Z</time></trkpt><trkpt lat="42.34938111032072" lon="-1.4230801417036514"><ele>354.0</ele><time>2026-03-31T11:32:36Z</time></trkpt><trkpt lat="42.34955495987042" lon="-1.4233876866474369"><ele>354.0</ele><time>2026-03-31T11:32:37Z</time></trkpt><trkpt lat="42.349727229355814" lon="-1.4236922967658994"><ele>354.0</ele><time>2026-03-31T11:32:38Z</time></trkpt><trkpt lat="42.349898506735514" lon="-1.4239870686337017"><ele>354.0</ele><time>2026-03-31T11:32:39Z</time></trkpt><trkpt lat="42.35007109786794" lon="-1.4242822910946584"><ele>354.0</ele><time>2026-03-31T11:32:40Z</time></trkpt><trkpt lat="42.350246796356096" lon="-1.4245684560098153"><ele>354.0</ele><time>2026-03-31T11:32:41Z</time></trkpt><trkpt lat="42.350416901201" lon="-1.4248676270160014"><ele>354.0</ele><time>2026-03-31T11:32:42Z</time></trkpt><trkpt lat="42.35059369690741" lon="-1.4251680047539022"><ele>354.5</ele><time>2026-03-31T11:32:43Z</time></trkpt><trkpt lat="42.350770454021905" lon="-1.4254681850420863"><ele>355.0</ele><time>2026-03-31T11:32:44Z</time></trkpt><trkpt lat="42.35094566861279" lon="-1.4257771847470473"><ele>354.0</ele><time>2026-03-31T11:32:45Z</time></trkpt><trkpt lat="42.35112200069512" lon="-1.4260814658430385"><ele>353.0</ele><time>2026-03-31T11:32:46Z</time></trkpt><trkpt lat="42.3513044519198" lon="-1.4263959690070682"><ele>353.0</ele><time>2026-03-31T11:32:47Z</time></trkpt><trkpt lat="42.35149428093101" lon="-1.4267221262828182"><ele>353.0</ele><time>2026-03-31T11:32:48Z</time></trkpt><trkpt lat="42.35168705956481" lon="-1.4270545645184243"><ele>352.5</ele><time>2026-03-31T11:32:49Z</time></trkpt><trkpt lat="42.35188485481455" lon="-1.4273927749052977"><ele>352.0</ele><time>2026-03-31T11:32:50Z</time></trkpt><trkpt lat="42.352073372689986" lon="-1.4277193739370684"><ele>351.5</ele><time>2026-03-31T11:32:51Z</time></trkpt><trkpt lat="42.352261119036335" lon="-1.4280355204024329"><ele>351.0</ele><time>2026-03-31T11:32:52Z</time></trkpt><trkpt lat="42.35245424173956" lon="-1.4283726883247723"><ele>351.0</ele><time>2026-03-31T11:32:53Z</time></trkpt><trkpt lat="42.352643295971944" lon="-1.4287040746826543"><ele>351.0</ele><time>2026-03-31T11:32:54Z</time></trkpt><trkpt lat="42.352835728422846" lon="-1.4290276510542197"><ele>351.0</ele><time>2026-03-31T11:32:55Z</time></trkpt><trkpt lat="42.35301840038432" lon="-1.4293448846717367"><ele>351.0</ele><time>2026-03-31T11:32:56Z</time></trkpt><trkpt lat="42.35319370478793" lon="-1.4296592076992203"><ele>352.0</ele><time>2026-03-31T11:32:57Z</time></trkpt><trkpt lat="42.35337780411298" lon="-1.429963499461434"><ele>353.0</ele><time>2026-03-31T11:32:58Z</time></trkpt><trkpt lat="42.35355401016708" lon="-1.4302558075850886"><ele>352.5</ele><time>2026-03-31T11:32:59Z</time></trkpt><trkpt lat="42.35371689445852" lon="-1.4305402509471425"><ele>352.0</ele><time>2026-03-31T11:33:00Z</time></trkpt><trkpt lat="42.353875726095914" lon="-1.4308174966262186"><ele>353.5</ele><time>2026-03-31T11:33:01Z</time></trkpt><trkpt lat="42.35404693969423" lon="-1.4310732276709117"><ele>355.0</ele><time>2026-03-31T11:33:02Z</time></trkpt><trkpt lat="42.3542450571652" lon="-1.4312960520656552"><ele>356.0</ele><time>2026-03-31T11:33:03Z</time></trkpt><trkpt lat="42.35445558740383" lon="-1.4314826301068733"><ele>357.0</ele><time>2026-03-31T11:33:04Z</time></trkpt><trkpt lat="42.35467810866657" lon="-1.4316465052791831"><ele>359.0</ele><time>2026-03-31T11:33:05Z</time></trkpt><trkpt lat="42.35492455418965" lon="-1.4318022403603168"><ele>361.0</ele><time>2026-03-31T11:33:06Z</time></trkpt><trkpt lat="42.355176716530224" lon="-1.4319419813135654"><ele>361.0</ele><time>2026-03-31T11:33:07Z</time></trkpt><trkpt lat="42.355426591442814" lon="-1.4320891808443001"><ele>361.0</ele><time>2026-03-31T11:33:08Z</time></trkpt><trkpt lat="42.355670267505154" lon="-1.4322430300939397"><ele>360.0</ele><time>2026-03-31T11:33:09Z</time></trkpt><trkpt lat="42.35591178702411" lon="-1.432400419943678"><ele>359.0</ele><time>2026-03-31T11:33:10Z</time></trkpt><trkpt lat="42.35615951275765" lon="-1.4325580469220278"><ele>358.0</ele><time>2026-03-31T11:33:11Z</time></trkpt><trkpt lat="42.35641089225082" lon="-1.4327125041294426"><ele>357.0</ele><time>2026-03-31T11:33:12Z</time></trkpt><trkpt lat="42.35666034024589" lon="-1.432873916345579"><ele>356.0</ele><time>2026-03-31T11:33:13Z</time></trkpt><trkpt lat="42.356909796555584" lon="-1.4330369650181254"><ele>355.0</ele><time>2026-03-31T11:33:14Z</time></trkpt><trkpt lat="42.35715727729532" lon="-1.4331896345756066"><ele>356.5</ele><time>2026-03-31T11:33:15Z</time></trkpt><trkpt lat="42.35740693767927" lon="-1.433348991914228"><ele>358.0</ele><time>2026-03-31T11:33:16Z</time></trkpt><trkpt lat="42.357660337483075" lon="-1.4335132647349624"><ele>358.0</ele><time>2026-03-31T11:33:17Z</time></trkpt><trkpt lat="42.357915910583806" lon="-1.4336744457576862"><ele>358.0</ele><time>2026-03-31T11:33:18Z</time></trkpt><trkpt lat="42.3581714847896" lon="-1.4338356366375251"><ele>358.0</ele><time>2026-03-31T11:33:19Z</time></trkpt><trkpt lat="42.35842365468285" lon="-1.4339945705982726"><ele>358.0</ele><time>2026-03-31T11:33:20Z</time></trkpt><trkpt lat="42.358676687659646" lon="-1.4341572508941824"><ele>359.5</ele><time>2026-03-31T11:33:21Z</time></trkpt><trkpt lat="42.35892673636326" lon="-1.434315026483141"><ele>361.0</ele><time>2026-03-31T11:33:22Z</time></trkpt><trkpt lat="42.359175576444045" lon="-1.4344717497342814"><ele>361.0</ele><time>2026-03-31T11:33:23Z</time></trkpt><trkpt lat="42.35942743535987" lon="-1.4346289243533075"><ele>361.0</ele><time>2026-03-31T11:33:24Z</time></trkpt><trkpt lat="42.35967943176658" lon="-1.4347892851463377"><ele>359.0</ele><time>2026-03-31T11:33:25Z</time></trkpt><trkpt lat="42.35993239959268" lon="-1.4349558738479775"><ele>357.0</ele><time>2026-03-31T11:33:26Z</time></trkpt><trkpt lat="42.360183291873874" lon="-1.435117386224851"><ele>357.0</ele><time>2026-03-31T11:33:27Z</time></trkpt><trkpt lat="42.360432561120156" lon="-1.4352748391545935"><ele>357.0</ele><time>2026-03-31T11:33:28Z</time></trkpt><trkpt lat="42.36067627121286" lon="-1.435429226506575"><ele>356.5</ele><time>2026-03-31T11:33:29Z</time></trkpt><trkpt lat="42.36091145387507" lon="-1.4355749100401507"><ele>356.0</ele><time>2026-03-31T11:33:30Z</time></trkpt><trkpt lat="42.361149341788504" lon="-1.4357286012226973"><ele>358.5</ele><time>2026-03-31T11:33:31Z</time></trkpt><trkpt lat="42.36138656672576" lon="-1.4358845549602128"><ele>361.0</ele><time>2026-03-31T11:33:32Z</time></trkpt><trkpt lat="42.36162588545303" lon="-1.4360337101821496"><ele>361.0</ele><time>2026-03-31T11:33:33Z</time></trkpt><trkpt lat="42.36186883084506" lon="-1.4361789421101423"><ele>361.0</ele><time>2026-03-31T11:33:34Z</time></trkpt><trkpt lat="42.3621044081871" lon="-1.4363276914214818"><ele>361.0</ele><time>2026-03-31T11:33:35Z</time></trkpt><trkpt lat="42.36234204203989" lon="-1.4364862963655387"><ele>361.0</ele><time>2026-03-31T11:33:36Z</time></trkpt><trkpt lat="42.3625785611444" lon="-1.4366385800894728"><ele>361.0</ele><time>2026-03-31T11:33:37Z</time></trkpt><trkpt lat="42.36281761844407" lon="-1.4367884344405755"><ele>361.0</ele><time>2026-03-31T11:33:38Z</time></trkpt><trkpt lat="42.36305315937124" lon="-1.4369323273344774"><ele>363.5</ele><time>2026-03-31T11:33:39Z</time></trkpt><trkpt lat="42.363283685094224" lon="-1.437082624416269"><ele>366.0</ele><time>2026-03-31T11:33:40Z</time></trkpt><trkpt lat="42.363508646098325" lon="-1.4372260736502167"><ele>368.0</ele><time>2026-03-31T11:33:41Z</time></trkpt><trkpt lat="42.36373060341541" lon="-1.4373631257831627"><ele>370.0</ele><time>2026-03-31T11:33:42Z</time></trkpt><trkpt lat="42.36395622517039" lon="-1.4375008123894824"><ele>372.0</ele><time>2026-03-31T11:33:43Z</time></trkpt><trkpt lat="42.364172137195965" lon="-1.4376297049539188"><ele>374.0</ele><time>2026-03-31T11:33:44Z</time></trkpt><trkpt lat="42.36438920228126" lon="-1.4377825587462827"><ele>377.5</ele><time>2026-03-31T11:33:45Z</time></trkpt><trkpt lat="42.36458967869478" lon="-1.437989859472636"><ele>381.0</ele><time>2026-03-31T11:33:46Z</time></trkpt><trkpt lat="42.36477096767527" lon="-1.4382458502540882"><ele>382.0</ele><time>2026-03-31T11:33:47Z</time></trkpt><trkpt lat="42.36496041433369" lon="-1.4384841993592203"><ele>383.0</ele><time>2026-03-31T11:33:48Z</time></trkpt><trkpt lat="42.365163162957074" lon="-1.4387157850103927"><ele>382.5</ele><time>2026-03-31T11:33:49Z</time></trkpt><trkpt lat="42.365355658121956" lon="-1.4389556371543202"><ele>382.0</ele><time>2026-03-31T11:33:50Z</time></trkpt><trkpt lat="42.365535733521455" lon="-1.439174708891167"><ele>384.0</ele><time>2026-03-31T11:33:51Z</time></trkpt><trkpt lat="42.36571027520431" lon="-1.4393709556687568"><ele>386.0</ele><time>2026-03-31T11:33:52Z</time></trkpt><trkpt lat="42.36589711929654" lon="-1.4395703976406355"><ele>384.0</ele><time>2026-03-31T11:33:53Z</time></trkpt><trkpt lat="42.36610575017499" lon="-1.4397607963719923"><ele>382.0</ele><time>2026-03-31T11:33:54Z</time></trkpt><trkpt lat="42.36633429349249" lon="-1.439930396271135"><ele>381.0</ele><time>2026-03-31T11:33:55Z</time></trkpt><trkpt lat="42.36658301356391" lon="-1.4400694137709433"><ele>380.0</ele><time>2026-03-31T11:33:56Z</time></trkpt><trkpt lat="42.36683630735339" lon="-1.4401706893438364"><ele>380.0</ele><time>2026-03-31T11:33:57Z</time></trkpt><trkpt lat="42.36708925089617" lon="-1.4402656548677877"><ele>380.0</ele><time>2026-03-31T11:33:58Z</time></trkpt><trkpt lat="42.36734840501348" lon="-1.440364592149034"><ele>376.0</ele><time>2026-03-31T11:33:59Z</time></trkpt><trkpt lat="42.3676049625678" lon="-1.4404678482685382"><ele>372.0</ele><time>2026-03-31T11:34:00Z</time></trkpt><trkpt lat="42.36786106753197" lon="-1.4405756615021976"><ele>370.5</ele><time>2026-03-31T11:34:01Z</time></trkpt><trkpt lat="42.368116711644575" lon="-1.4406828476925158"><ele>369.0</ele><time>2026-03-31T11:34:02Z</time></trkpt><trkpt lat="42.368372525525174" lon="-1.440786872858726"><ele>369.0</ele><time>2026-03-31T11:34:03Z</time></trkpt><trkpt lat="42.368625829457024" lon="-1.440891262095016"><ele>369.0</ele><time>2026-03-31T11:34:04Z</time></trkpt><trkpt lat="42.368872865519805" lon="-1.4409917267526768"><ele>368.5</ele><time>2026-03-31T11:34:05Z</time></trkpt><trkpt lat="42.36911479076238" lon="-1.441095800418425"><ele>368.0</ele><time>2026-03-31T11:34:06Z</time></trkpt><trkpt lat="42.36935556251832" lon="-1.4411963436313187"><ele>368.0</ele><time>2026-03-31T11:34:07Z</time></trkpt><trkpt lat="42.36959346391092" lon="-1.4412933603649238"><ele>368.0</ele><time>2026-03-31T11:34:08Z</time></trkpt><trkpt lat="42.36981473246388" lon="-1.4413874238752842"><ele>367.6666666666667</ele><time>2026-03-31T11:34:09Z</time></trkpt><trkpt lat="42.37001700980874" lon="-1.4414724323844008"><ele>367.3333333333333</ele><time>2026-03-31T11:34:10Z</time></trkpt><trkpt lat="42.37020679338154" lon="-1.4415546233351113"><ele>367.0</ele><time>2026-03-31T11:34:11Z</time></trkpt><trkpt lat="42.370388297094756" lon="-1.4416344197565347"><ele>367.66666666666663</ele><time>2026-03-31T11:34:12Z</time></trkpt><trkpt lat="42.37055764808713" lon="-1.441703070834719"><ele>368.3333333333333</ele><time>2026-03-31T11:34:13Z</time></trkpt><trkpt lat="42.370703122533406" lon="-1.441759182026696"><ele>369.0</ele><time>2026-03-31T11:34:14Z</time></trkpt><trkpt lat="42.370824788167695" lon="-1.441805001186077"><ele>369.0</ele><time>2026-03-31T11:34:15Z</time></trkpt><trkpt lat="42.37092187504145" lon="-1.4418364800492012"><ele>369.0</ele><time>2026-03-31T11:34:16Z</time></trkpt><trkpt lat="42.371001985809215" lon="-1.4418448716830572"><ele>369.0</ele><time>2026-03-31T11:34:17Z</time></trkpt><trkpt lat="42.371069684336895" lon="-1.4418179023878281"><ele>369.0</ele><time>2026-03-31T11:34:18Z</time></trkpt><trkpt lat="42.371132989873296" lon="-1.441754178925583"><ele>369.0</ele><time>2026-03-31T11:34:19Z</time></trkpt><trkpt lat="42.371201142661754" lon="-1.4416830506994878"><ele>369.0</ele><time>2026-03-31T11:34:20Z</time></trkpt><trkpt lat="42.37126633086725" lon="-1.4416520976906402"><ele>369.0</ele><time>2026-03-31T11:34:21Z</time></trkpt><trkpt lat="42.37133203776806" lon="-1.4416592845416005"><ele>369.0</ele><time>2026-03-31T11:34:23Z</time></trkpt><trkpt lat="42.37137592781964" lon="-1.441724013005195"><ele>369.0</ele><time>2026-03-31T11:34:48Z</time></trkpt><trkpt lat="42.37144537298692" lon="-1.4418631499419479"><ele>369.0</ele><time>2026-03-31T11:34:50Z</time></trkpt><trkpt lat="42.371486125312664" lon="-1.441967672305203"><ele>369.0</ele><time>2026-03-31T11:34:51Z</time></trkpt><trkpt lat="42.37154078616423" lon="-1.4420620665107868"><ele>369.0</ele><time>2026-03-31T11:34:52Z</time></trkpt><trkpt lat="42.37163238160848" lon="-1.4421459894213338"><ele>368.5</ele><time>2026-03-31T11:34:53Z</time></trkpt><trkpt lat="42.37174506099492" lon="-1.4422006839434778"><ele>368.0</ele><time>2026-03-31T11:34:54Z</time></trkpt><trkpt lat="42.37187075945827" lon="-1.442247156243815"><ele>367.5</ele><time>2026-03-31T11:34:55Z</time></trkpt><trkpt lat="42.37200591838806" lon="-1.4422927282606102"><ele>367.0</ele><time>2026-03-31T11:34:56Z</time></trkpt><trkpt lat="42.37216104874664" lon="-1.4423503335806327"><ele>365.66666666666663</ele><time>2026-03-31T11:34:57Z</time></trkpt><trkpt lat="42.37233891707652" lon="-1.4424239964213386"><ele>364.3333333333333</ele><time>2026-03-31T11:34:58Z</time></trkpt><trkpt lat="42.37250216286102" lon="-1.4424929708009915"><ele>363.0</ele><time>2026-03-31T11:34:59Z</time></trkpt><trkpt lat="42.37266060201668" lon="-1.4425595667214104"><ele>363.0</ele><time>2026-03-31T11:35:00Z</time></trkpt><trkpt lat="42.37282665133862" lon="-1.4426268613955768"><ele>363.0</ele><time>2026-03-31T11:35:01Z</time></trkpt><trkpt lat="42.372997006835085" lon="-1.442696463287063"><ele>363.0</ele><time>2026-03-31T11:35:02Z</time></trkpt><trkpt lat="42.373173979725884" lon="-1.4427708275939566"><ele>362.3333333333333</ele><time>2026-03-31T11:35:03Z</time></trkpt><trkpt lat="42.373348330660605" lon="-1.4428406851877051"><ele>361.66666666666663</ele><time>2026-03-31T11:35:04Z</time></trkpt><trkpt lat="42.37352745679748" lon="-1.4429140836662744"><ele>361.0</ele><time>2026-03-31T11:35:05Z</time></trkpt><trkpt lat="42.37370483962337" lon="-1.4429834565305124"><ele>360.0</ele><time>2026-03-31T11:35:06Z</time></trkpt><trkpt lat="42.37388960673746" lon="-1.4430449062965347"><ele>359.0</ele><time>2026-03-31T11:35:07Z</time></trkpt><trkpt lat="42.37407757910503" lon="-1.4430967054480601"><ele>358.0</ele><time>2026-03-31T11:35:08Z</time></trkpt><trkpt lat="42.37426758588555" lon="-1.443151331711837"><ele>358.0</ele><time>2026-03-31T11:35:09Z</time></trkpt><trkpt lat="42.37445401139653" lon="-1.4432068115514314"><ele>358.0</ele><time>2026-03-31T11:35:10Z</time></trkpt><trkpt lat="42.37463974397427" lon="-1.4432607875527141"><ele>358.0</ele><time>2026-03-31T11:35:11Z</time></trkpt><trkpt lat="42.37482737624234" lon="-1.4433185570412679"><ele>357.3333333333333</ele><time>2026-03-31T11:35:12Z</time></trkpt><trkpt lat="42.37501485715865" lon="-1.4433781123114755"><ele>356.6666666666667</ele><time>2026-03-31T11:35:13Z</time></trkpt><trkpt lat="42.37520125887994" lon="-1.4434326474213461"><ele>356.0</ele><time>2026-03-31T11:35:14Z</time></trkpt><trkpt lat="42.3753844251372" lon="-1.4434821817321226"><ele>355.6666666666667</ele><time>2026-03-31T11:35:15Z</time></trkpt><trkpt lat="42.3755641047306" lon="-1.4435305324079175"><ele>355.3333333333333</ele><time>2026-03-31T11:35:16Z</time></trkpt><trkpt lat="42.37574015587072" lon="-1.4435793745928187"><ele>355.0</ele><time>2026-03-31T11:35:17Z</time></trkpt><trkpt lat="42.375916947308454" lon="-1.4436309488906167"><ele>355.0</ele><time>2026-03-31T11:35:18Z</time></trkpt><trkpt lat="42.37607957461478" lon="-1.443676059910566"><ele>355.0</ele><time>2026-03-31T11:35:19Z</time></trkpt><trkpt lat="42.376232779377986" lon="-1.4437216377930226"><ele>355.0</ele><time>2026-03-31T11:35:20Z</time></trkpt><trkpt lat="42.376379972764084" lon="-1.4437615374293038"><ele>354.75</ele><time>2026-03-31T11:35:21Z</time></trkpt><trkpt lat="42.37651648888408" lon="-1.4437991528031526"><ele>354.5</ele><time>2026-03-31T11:35:22Z</time></trkpt><trkpt lat="42.376652781619285" lon="-1.4438399787098406"><ele>354.25</ele><time>2026-03-31T11:35:23Z</time></trkpt><trkpt lat="42.376796179043126" lon="-1.4438771118747507"><ele>354.0</ele><time>2026-03-31T11:35:24Z</time></trkpt><trkpt lat="42.376942102510206" lon="-1.4439177988017624"><ele>354.0</ele><time>2026-03-31T11:35:25Z</time></trkpt><trkpt lat="42.37709206617755" lon="-1.4439600089273934"><ele>354.0</ele><time>2026-03-31T11:35:26Z</time></trkpt><trkpt lat="42.377235478160664" lon="-1.4440013755270362"><ele>354.0</ele><time>2026-03-31T11:35:27Z</time></trkpt><trkpt lat="42.37736524749659" lon="-1.4440387782061264"><ele>354.0</ele><time>2026-03-31T11:35:28Z</time></trkpt><trkpt lat="42.377481274498976" lon="-1.4440746925042354"><ele>354.0</ele><time>2026-03-31T11:35:29Z</time></trkpt><trkpt lat="42.37758804157789" lon="-1.4441094826809977"><ele>354.0</ele><time>2026-03-31T11:35:30Z</time></trkpt><trkpt lat="42.37768538985116" lon="-1.4441373566377924"><ele>354.0</ele><time>2026-03-31T11:35:31Z</time></trkpt><trkpt lat="42.37777718005368" lon="-1.4441548815797716"><ele>354.0</ele><time>2026-03-31T11:35:32Z</time></trkpt><trkpt lat="42.37785972317386" lon="-1.4441765001879272"><ele>354.0</ele><time>2026-03-31T11:35:33Z</time></trkpt><trkpt lat="42.37793499771435" lon="-1.444190535035183"><ele>354.0</ele><time>2026-03-31T11:35:34Z</time></trkpt><trkpt lat="42.37800592564341" lon="-1.4442207462641639"><ele>354.0</ele><time>2026-03-31T11:35:35Z</time></trkpt><trkpt lat="42.37808932818334" lon="-1.4442387210713041"><ele>354.0</ele><time>2026-03-31T11:35:36Z</time></trkpt><trkpt lat="42.37816736846028" lon="-1.4442602297363345"><ele>354.0</ele><time>2026-03-31T11:35:37Z</time></trkpt><trkpt lat="42.37823637079357" lon="-1.4442739594270124"><ele>354.0</ele><time>2026-03-31T11:35:38Z</time></trkpt><trkpt lat="42.37830394568796" lon="-1.4442831892786983"><ele>354.0</ele><time>2026-03-31T11:35:39Z</time></trkpt><trkpt lat="42.37838538703802" lon="-1.444277343982591"><ele>353.79999999999995</ele><time>2026-03-31T11:35:41Z</time></trkpt><trkpt lat="42.37841986410589" lon="-1.444138983542383"><ele>353.59999999999997</ele><time>2026-03-31T11:35:49Z</time></trkpt><trkpt lat="42.378412279245275" lon="-1.4440335844370953"><ele>353.4</ele><time>2026-03-31T11:35:50Z</time></trkpt><trkpt lat="42.37838233533658" lon="-1.4439135584137575"><ele>353.2</ele><time>2026-03-31T11:35:51Z</time></trkpt><trkpt lat="42.37835645323959" lon="-1.4437587668166427"><ele>353.0</ele><time>2026-03-31T11:35:52Z</time></trkpt><trkpt lat="42.378314364111915" lon="-1.443587825257088"><ele>353.0</ele><time>2026-03-31T11:35:53Z</time></trkpt><trkpt lat="42.37828920397479" lon="-1.4434106986390156"><ele>353.0</ele><time>2026-03-31T11:35:54Z</time></trkpt><trkpt lat="42.37826134280525" lon="-1.443228595428443"><ele>353.0</ele><time>2026-03-31T11:35:55Z</time></trkpt><trkpt lat="42.37823230933629" lon="-1.4430388299562422"><ele>353.0</ele><time>2026-03-31T11:35:56Z</time></trkpt><trkpt lat="42.37820227614816" lon="-1.4428425302270915"><ele>353.5</ele><time>2026-03-31T11:35:57Z</time></trkpt><trkpt lat="42.37817369844914" lon="-1.442649333586376"><ele>354.0</ele><time>2026-03-31T11:35:58Z</time></trkpt><trkpt lat="42.37814795074726" lon="-1.4424731944730191"><ele>354.5</ele><time>2026-03-31T11:35:59Z</time></trkpt><trkpt lat="42.37812548595409" lon="-1.442314538325326"><ele>355.0</ele><time>2026-03-31T11:36:00Z</time></trkpt><trkpt lat="42.378104461800525" lon="-1.442166056604436"><ele>355.5</ele><time>2026-03-31T11:36:01Z</time></trkpt><trkpt lat="42.37808373714551" lon="-1.44201969006706"><ele>356.0</ele><time>2026-03-31T11:36:02Z</time></trkpt><trkpt lat="42.378063104950506" lon="-1.4418739765272384"><ele>356.5</ele><time>2026-03-31T11:36:03Z</time></trkpt><trkpt lat="42.378040916016445" lon="-1.4417179615287858"><ele>357.0</ele><time>2026-03-31T11:36:04Z</time></trkpt><trkpt lat="42.37801766083628" lon="-1.4415545883767586"><ele>357.0</ele><time>2026-03-31T11:36:05Z</time></trkpt><trkpt lat="42.37799320526421" lon="-1.4413895690206753"><ele>357.0</ele><time>2026-03-31T11:36:06Z</time></trkpt><trkpt lat="42.37796837793382" lon="-1.4412200142920994"><ele>357.0</ele><time>2026-03-31T11:36:07Z</time></trkpt><trkpt lat="42.37794396099816" lon="-1.4410532622974783"><ele>357.0</ele><time>2026-03-31T11:36:08Z</time></trkpt><trkpt lat="42.37792043737314" lon="-1.4408926110375868"><ele>357.5</ele><time>2026-03-31T11:36:09Z</time></trkpt><trkpt lat="42.37789971596245" lon="-1.4407347730467697"><ele>358.0</ele><time>2026-03-31T11:36:10Z</time></trkpt><trkpt lat="42.37787986117807" lon="-1.4405822189019377"><ele>358.5</ele><time>2026-03-31T11:36:11Z</time></trkpt><trkpt lat="42.37785863552627" lon="-1.4404207950581849"><ele>359.0</ele><time>2026-03-31T11:36:12Z</time></trkpt><trkpt lat="42.37783597473031" lon="-1.4402510294792656"><ele>359.75</ele><time>2026-03-31T11:36:13Z</time></trkpt><trkpt lat="42.37780744278433" lon="-1.4400643232008776"><ele>360.5</ele><time>2026-03-31T11:36:14Z</time></trkpt><trkpt lat="42.377778326724496" lon="-1.4398680117511033"><ele>361.25</ele><time>2026-03-31T11:36:15Z</time></trkpt><trkpt lat="42.37775128911907" lon="-1.4396857140295558"><ele>362.0</ele><time>2026-03-31T11:36:16Z</time></trkpt><trkpt lat="42.37772612976757" lon="-1.439510327841661"><ele>362.5</ele><time>2026-03-31T11:36:17Z</time></trkpt><trkpt lat="42.37769926578389" lon="-1.4393292413511392"><ele>363.0</ele><time>2026-03-31T11:36:18Z</time></trkpt><trkpt lat="42.37766972906646" lon="-1.4391309984133585"><ele>363.5</ele><time>2026-03-31T11:36:19Z</time></trkpt><trkpt lat="42.377639093108506" lon="-1.4389264227634762"><ele>364.0</ele><time>2026-03-31T11:36:20Z</time></trkpt><trkpt lat="42.37760939418387" lon="-1.4387145815919924"><ele>364.3333333333333</ele><time>2026-03-31T11:36:21Z</time></trkpt><trkpt lat="42.37758081149879" lon="-1.4385027481353974"><ele>364.6666666666667</ele><time>2026-03-31T11:36:22Z</time></trkpt><trkpt lat="42.37755141442186" lon="-1.4382978026928124"><ele>365.0</ele><time>2026-03-31T11:36:23Z</time></trkpt><trkpt lat="42.377522042603935" lon="-1.438092978017061"><ele>366.33333333333337</ele><time>2026-03-31T11:36:24Z</time></trkpt><trkpt lat="42.37749171036838" lon="-1.4378886688005663"><ele>367.6666666666667</ele><time>2026-03-31T11:36:25Z</time></trkpt><trkpt lat="42.37746177527838" lon="-1.4376874003797107"><ele>369.0</ele><time>2026-03-31T11:36:26Z</time></trkpt><trkpt lat="42.37743131044277" lon="-1.4374825702135616"><ele>369.0</ele><time>2026-03-31T11:36:27Z</time></trkpt><trkpt lat="42.37740150208821" lon="-1.4372821538916114"><ele>369.0</ele><time>2026-03-31T11:36:28Z</time></trkpt><trkpt lat="42.377373222469025" lon="-1.4370834339356335"><ele>369.0</ele><time>2026-03-31T11:36:29Z</time></trkpt><trkpt lat="42.37734396416342" lon="-1.4368781856212307"><ele>369.6666666666667</ele><time>2026-03-31T11:36:30Z</time></trkpt><trkpt lat="42.377312860259146" lon="-1.4366599903449508"><ele>370.33333333333337</ele><time>2026-03-31T11:36:31Z</time></trkpt><trkpt lat="42.37727983950573" lon="-1.436428348268406"><ele>371.0</ele><time>2026-03-31T11:36:32Z</time></trkpt><trkpt lat="42.37726871583292" lon="-1.4361776921986409"><ele>371.6666666666667</ele><time>2026-03-31T11:36:33Z</time></trkpt><trkpt lat="42.377232874015725" lon="-1.4359222265232217"><ele>372.3333333333333</ele><time>2026-03-31T11:36:34Z</time></trkpt><trkpt lat="42.37719367495387" lon="-1.4356583733669634"><ele>373.0</ele><time>2026-03-31T11:36:35Z</time></trkpt><trkpt lat="42.37715368154221" lon="-1.435406952187171"><ele>374.66666666666663</ele><time>2026-03-31T11:36:36Z</time></trkpt><trkpt lat="42.377113768154" lon="-1.4351638968372251"><ele>376.3333333333333</ele><time>2026-03-31T11:36:37Z</time></trkpt><trkpt lat="42.37707909121477" lon="-1.434926150733193"><ele>378.0</ele><time>2026-03-31T11:36:38Z</time></trkpt><trkpt lat="42.377027417088826" lon="-1.4346714732728327"><ele>379.0</ele><time>2026-03-31T11:36:39Z</time></trkpt><trkpt lat="42.37698550411068" lon="-1.4343941113485201"><ele>380.0</ele><time>2026-03-31T11:36:40Z</time></trkpt><trkpt lat="42.376943256490385" lon="-1.4341153825485682"><ele>381.0</ele><time>2026-03-31T11:36:41Z</time></trkpt><trkpt lat="42.37690171137836" lon="-1.433834802490579"><ele>382.66666666666663</ele><time>2026-03-31T11:36:42Z</time></trkpt><trkpt lat="42.376865306509494" lon="-1.4335588755573228"><ele>384.3333333333333</ele><time>2026-03-31T11:36:43Z</time></trkpt><trkpt lat="42.376827815480056" lon="-1.4332779659251873"><ele>386.0</ele><time>2026-03-31T11:36:44Z</time></trkpt><trkpt lat="42.37678819885759" lon="-1.4329878664664504"><ele>386.3333333333333</ele><time>2026-03-31T11:36:45Z</time></trkpt><trkpt lat="42.37674543864114" lon="-1.4326959377739856"><ele>386.66666666666663</ele><time>2026-03-31T11:36:46Z</time></trkpt><trkpt lat="42.37670262888782" lon="-1.432401107111078"><ele>387.0</ele><time>2026-03-31T11:36:47Z</time></trkpt><trkpt lat="42.37666151718907" lon="-1.4321135557284974"><ele>388.33333333333337</ele><time>2026-03-31T11:36:48Z</time></trkpt><trkpt lat="42.37662032231153" lon="-1.4318270101046975"><ele>389.6666666666667</ele><time>2026-03-31T11:36:49Z</time></trkpt><trkpt lat="42.37657812419604" lon="-1.431548358562355"><ele>391.0</ele><time>2026-03-31T11:36:50Z</time></trkpt><trkpt lat="42.376536797487766" lon="-1.4312732877648706"><ele>391.33333333333337</ele><time>2026-03-31T11:36:51Z</time></trkpt><trkpt lat="42.37649824237713" lon="-1.431005110268263"><ele>391.66666666666663</ele><time>2026-03-31T11:36:52Z</time></trkpt><trkpt lat="42.37646368904162" lon="-1.4307592965026754"><ele>392.0</ele><time>2026-03-31T11:36:53Z</time></trkpt><trkpt lat="42.376440531850214" lon="-1.4305398342171654"><ele>394.3333333333333</ele><time>2026-03-31T11:36:54Z</time></trkpt><trkpt lat="42.376470108257195" lon="-1.430331450768422"><ele>396.66666666666663</ele><time>2026-03-31T11:36:55Z</time></trkpt><trkpt lat="42.37653144470034" lon="-1.4301382860645109"><ele>399.0</ele><time>2026-03-31T11:36:56Z</time></trkpt><trkpt lat="42.376650512308366" lon="-1.4299663399726006"><ele>399.0</ele><time>2026-03-31T11:36:57Z</time></trkpt><trkpt lat="42.376793464568365" lon="-1.4297991282275502"><ele>399.0</ele><time>2026-03-31T11:36:58Z</time></trkpt><trkpt lat="42.376915430592284" lon="-1.4295870076080026"><ele>399.0</ele><time>2026-03-31T11:36:59Z</time></trkpt><trkpt lat="42.37704067889525" lon="-1.4293971227985398"><ele>401.0</ele><time>2026-03-31T11:37:00Z</time></trkpt><trkpt lat="42.37714790131817" lon="-1.4291880020389045"><ele>403.0</ele><time>2026-03-31T11:37:01Z</time></trkpt><trkpt lat="42.37721111305262" lon="-1.4289338984266453"><ele>405.0</ele><time>2026-03-31T11:37:02Z</time></trkpt><trkpt lat="42.377280473417144" lon="-1.4286583340393693"><ele>407.66666666666663</ele><time>2026-03-31T11:37:03Z</time></trkpt><trkpt lat="42.377367166210334" lon="-1.4283868819032994"><ele>410.3333333333333</ele><time>2026-03-31T11:37:04Z</time></trkpt><trkpt lat="42.37742039972782" lon="-1.4281108864155256"><ele>413.0</ele><time>2026-03-31T11:37:05Z</time></trkpt><trkpt lat="42.377514439423805" lon="-1.4278830999459333"><ele>416.66666666666663</ele><time>2026-03-31T11:37:06Z</time></trkpt><trkpt lat="42.37762110233693" lon="-1.4276899964759882"><ele>420.33333333333337</ele><time>2026-03-31T11:37:07Z</time></trkpt><trkpt lat="42.37777040556105" lon="-1.427550405718443"><ele>424.0</ele><time>2026-03-31T11:37:08Z</time></trkpt><trkpt lat="42.377867165826856" lon="-1.4273615368982475"><ele>427.33333333333337</ele><time>2026-03-31T11:37:09Z</time></trkpt><trkpt lat="42.377930298233075" lon="-1.427127645198552"><ele>430.66666666666663</ele><time>2026-03-31T11:37:10Z</time></trkpt><trkpt lat="42.37792908164225" lon="-1.4268673358583996"><ele>434.0</ele><time>2026-03-31T11:37:11Z</time></trkpt><trkpt lat="42.37793949560898" lon="-1.4265796558579305"><ele>434.0</ele><time>2026-03-31T11:37:12Z</time></trkpt><trkpt lat="42.377982150282094" lon="-1.4263116465776546"><ele>434.0</ele><time>2026-03-31T11:37:13Z</time></trkpt><trkpt lat="42.37804578452519" lon="-1.426060190587534"><ele>434.0</ele><time>2026-03-31T11:37:14Z</time></trkpt><trkpt lat="42.37815714035624" lon="-1.4258498702925693"><ele>432.0</ele><time>2026-03-31T11:37:15Z</time></trkpt><trkpt lat="42.3782122939524" lon="-1.425615040041023"><ele>430.0</ele><time>2026-03-31T11:37:16Z</time></trkpt><trkpt lat="42.378225557800334" lon="-1.4253686892464095"><ele>428.0</ele><time>2026-03-31T11:37:17Z</time></trkpt><trkpt lat="42.378172417826875" lon="-1.4251317946337423"><ele>428.0</ele><time>2026-03-31T11:37:18Z</time></trkpt><trkpt lat="42.37807900592958" lon="-1.4249273097713038"><ele>428.0</ele><time>2026-03-31T11:37:19Z</time></trkpt><trkpt lat="42.3780301386234" lon="-1.424731935886372"><ele>428.0</ele><time>2026-03-31T11:37:20Z</time></trkpt><trkpt lat="42.37800572503344" lon="-1.424568670509779"><ele>431.66666666666663</ele><time>2026-03-31T11:37:21Z</time></trkpt><trkpt lat="42.37807920627679" lon="-1.424387737550573"><ele>435.33333333333337</ele><time>2026-03-31T11:37:22Z</time></trkpt><trkpt lat="42.37821304159448" lon="-1.4242628009270972"><ele>439.0</ele><time>2026-03-31T11:37:23Z</time></trkpt><trkpt lat="42.37838339624269" lon="-1.424212402142572"><ele>439.0</ele><time>2026-03-31T11:37:24Z</time></trkpt><trkpt lat="42.37854448231426" lon="-1.4241218052964117"><ele>439.0</ele><time>2026-03-31T11:37:25Z</time></trkpt><trkpt lat="42.37866744664646" lon="-1.423970145133828"><ele>439.0</ele><time>2026-03-31T11:37:26Z</time></trkpt><trkpt lat="42.37871031564045" lon="-1.423777031344605"><ele>442.6666666666667</ele><time>2026-03-31T11:37:27Z</time></trkpt><trkpt lat="42.37872637594345" lon="-1.4235710060569924"><ele>446.33333333333337</ele><time>2026-03-31T11:37:28Z</time></trkpt><trkpt lat="42.37873306096498" lon="-1.4233397732064927"><ele>450.0</ele><time>2026-03-31T11:37:29Z</time></trkpt><trkpt lat="42.378756196997465" lon="-1.423152572195693"><ele>450.0</ele><time>2026-03-31T11:37:30Z</time></trkpt><trkpt lat="42.37880769473796" lon="-1.4229978518827018"><ele>450.0</ele><time>2026-03-31T11:37:31Z</time></trkpt><trkpt lat="42.37892635524695" lon="-1.4229090641553954"><ele>450.0</ele><time>2026-03-31T11:37:32Z</time></trkpt><trkpt lat="42.37907868697852" lon="-1.4229115152710037"><ele>450.0</ele><time>2026-03-31T11:37:33Z</time></trkpt><trkpt lat="42.379251525613135" lon="-1.4229632578162463"><ele>446.66666666666663</ele><time>2026-03-31T11:37:34Z</time></trkpt><trkpt lat="42.37941129667661" lon="-1.4230784610089964"><ele>443.3333333333333</ele><time>2026-03-31T11:37:35Z</time></trkpt><trkpt lat="42.37953624572332" lon="-1.4232450966077475"><ele>440.0</ele><time>2026-03-31T11:37:36Z</time></trkpt><trkpt lat="42.37963889021484" lon="-1.4233936968987824"><ele>441.2</ele><time>2026-03-31T11:37:37Z</time></trkpt><trkpt lat="42.37975328089259" lon="-1.4234356283539318"><ele>442.4</ele><time>2026-03-31T11:37:38Z</time></trkpt><trkpt lat="42.379860048123774" lon="-1.4234420015538083"><ele>443.6</ele><time>2026-03-31T11:37:39Z</time></trkpt><trkpt lat="42.37996029223154" lon="-1.4233883928514113"><ele>444.8</ele><time>2026-03-31T11:37:40Z</time></trkpt><trkpt lat="42.38006630886042" lon="-1.4233514335247475"><ele>446.0</ele><time>2026-03-31T11:37:41Z</time></trkpt><trkpt lat="42.38016414029665" lon="-1.423296068021279"><ele>446.0</ele><time>2026-03-31T11:37:42Z</time></trkpt><trkpt lat="42.38026141761406" lon="-1.423242382174669"><ele>446.0</ele><time>2026-03-31T11:37:43Z</time></trkpt><trkpt lat="42.38035135279451" lon="-1.4231819835291335"><ele>446.0</ele><time>2026-03-31T11:37:44Z</time></trkpt><trkpt lat="42.380434700920624" lon="-1.4231148347253513"><ele>446.0</ele><time>2026-03-31T11:37:45Z</time></trkpt><trkpt lat="42.38050880505421" lon="-1.4230394153560306"><ele>446.0</ele><time>2026-03-31T11:37:46Z</time></trkpt><trkpt lat="42.380555910850646" lon="-1.4229330601982735"><ele>447.16666666666663</ele><time>2026-03-31T11:37:47Z</time></trkpt><trkpt lat="42.380620552230496" lon="-1.4228440872248302"><ele>448.3333333333333</ele><time>2026-03-31T11:37:48Z</time></trkpt><trkpt lat="42.380674480454864" lon="-1.4227537152194079"><ele>449.5</ele><time>2026-03-31T11:37:49Z</time></trkpt><trkpt lat="42.38074660976671" lon="-1.4226844140190515"><ele>450.66666666666663</ele><time>2026-03-31T11:37:50Z</time></trkpt><trkpt lat="42.38081461749953" lon="-1.4226552712751226"><ele>451.8333333333333</ele><time>2026-03-31T11:37:51Z</time></trkpt><trkpt lat="42.380914822587684" lon="-1.4226264116743583"><ele>453.0</ele><time>2026-03-31T11:37:53Z</time></trkpt><trkpt lat="42.38098397770886" lon="-1.4225631264469114"><ele>453.0</ele><time>2026-03-31T11:37:55Z</time></trkpt><trkpt lat="42.38105725809304" lon="-1.422468641495647"><ele>452.99999999999994</ele><time>2026-03-31T11:37:57Z</time></trkpt><trkpt lat="42.381111399118915" lon="-1.4223233952987548"><ele>452.99999999999994</ele><time>2026-03-31T11:37:59Z</time></trkpt><trkpt lat="42.38111604335439" lon="-1.4222208277629362"><ele>453.0</ele><time>2026-03-31T11:38:00Z</time></trkpt><trkpt lat="42.38109393029467" lon="-1.422107426816961"><ele>453.0</ele><time>2026-03-31T11:38:01Z</time></trkpt><trkpt lat="42.381021950659864" lon="-1.4220103927834198"><ele>454.59999999999997</ele><time>2026-03-31T11:38:02Z</time></trkpt><trkpt lat="42.38096179777715" lon="-1.4218997202726673"><ele>456.19999999999993</ele><time>2026-03-31T11:38:03Z</time></trkpt><trkpt lat="42.38089218833909" lon="-1.4217908081390662"><ele>457.8</ele><time>2026-03-31T11:38:04Z</time></trkpt><trkpt lat="42.380847274201834" lon="-1.4216562845667775"><ele>459.4</ele><time>2026-03-31T11:38:05Z</time></trkpt><trkpt lat="42.380852540471366" lon="-1.4215084568757412"><ele>461.0</ele><time>2026-03-31T11:38:06Z</time></trkpt><trkpt lat="42.38091141292116" lon="-1.4213972942991777"><ele>462.25</ele><time>2026-03-31T11:38:07Z</time></trkpt><trkpt lat="42.380990415513324" lon="-1.4213012569728607"><ele>463.5</ele><time>2026-03-31T11:38:08Z</time></trkpt><trkpt lat="42.38105415317174" lon="-1.421178664312927"><ele>464.75</ele><time>2026-03-31T11:38:09Z</time></trkpt><trkpt lat="42.381092146170275" lon="-1.4210273192404546"><ele>466.0</ele><time>2026-03-31T11:38:10Z</time></trkpt><trkpt lat="42.38107417303845" lon="-1.4208552488960795"><ele>466.0</ele><time>2026-03-31T11:38:11Z</time></trkpt><trkpt lat="42.38103181111972" lon="-1.4206762511779787"><ele>466.0</ele><time>2026-03-31T11:38:12Z</time></trkpt><trkpt lat="42.380966218489554" lon="-1.4204678524734489"><ele>466.0</ele><time>2026-03-31T11:38:13Z</time></trkpt><trkpt lat="42.3808692893993" lon="-1.420270274591081"><ele>467.0</ele><time>2026-03-31T11:38:14Z</time></trkpt><trkpt lat="42.380767362833254" lon="-1.4201025410963048"><ele>468.0</ele><time>2026-03-31T11:38:15Z</time></trkpt><trkpt lat="42.38065180028563" lon="-1.4199555522067653"><ele>469.0</ele><time>2026-03-31T11:38:16Z</time></trkpt><trkpt lat="42.38053213961692" lon="-1.4198161007141477"><ele>469.5</ele><time>2026-03-31T11:38:17Z</time></trkpt><trkpt lat="42.380442061015145" lon="-1.4196720128525073"><ele>470.0</ele><time>2026-03-31T11:38:18Z</time></trkpt><trkpt lat="42.38037020535958" lon="-1.4195387871946348"><ele>470.5</ele><time>2026-03-31T11:38:19Z</time></trkpt><trkpt lat="42.38034663314823" lon="-1.4193829656899957"><ele>471.0</ele><time>2026-03-31T11:38:20Z</time></trkpt><trkpt lat="42.38039627715239" lon="-1.4192326648979492"><ele>470.66666666666663</ele><time>2026-03-31T11:38:21Z</time></trkpt><trkpt lat="42.380495266173924" lon="-1.4191027778309877"><ele>470.3333333333333</ele><time>2026-03-31T11:38:22Z</time></trkpt><trkpt lat="42.380591113901396" lon="-1.4189393614583075"><ele>470.0</ele><time>2026-03-31T11:38:23Z</time></trkpt><trkpt lat="42.380699024831515" lon="-1.4187575927312117"><ele>470.0</ele><time>2026-03-31T11:38:24Z</time></trkpt><trkpt lat="42.380809511086355" lon="-1.418547378062586"><ele>470.0</ele><time>2026-03-31T11:38:25Z</time></trkpt><trkpt lat="42.38092927988161" lon="-1.4183167155823169"><ele>470.0</ele><time>2026-03-31T11:38:26Z</time></trkpt><trkpt lat="42.381051710716534" lon="-1.418100363880912"><ele>470.0</ele><time>2026-03-31T11:38:27Z</time></trkpt><trkpt lat="42.3811704147782" lon="-1.417880926956019"><ele>470.0</ele><time>2026-03-31T11:38:28Z</time></trkpt><trkpt lat="42.38128796142641" lon="-1.4176621880274243"><ele>470.0</ele><time>2026-03-31T11:38:29Z</time></trkpt><trkpt lat="42.38140288621036" lon="-1.417445670873917"><ele>470.3333333333333</ele><time>2026-03-31T11:38:30Z</time></trkpt><trkpt lat="42.3815156261806" lon="-1.4172293449385363"><ele>470.66666666666663</ele><time>2026-03-31T11:38:31Z</time></trkpt><trkpt lat="42.3816280553585" lon="-1.4170165039803972"><ele>471.0</ele><time>2026-03-31T11:38:32Z</time></trkpt><trkpt lat="42.38174067009012" lon="-1.4168057886814909"><ele>470.33333333333337</ele><time>2026-03-31T11:38:33Z</time></trkpt><trkpt lat="42.38185601762021" lon="-1.4165973670946133"><ele>469.6666666666667</ele><time>2026-03-31T11:38:34Z</time></trkpt><trkpt lat="42.381966975160324" lon="-1.416389653342156"><ele>469.0</ele><time>2026-03-31T11:38:35Z</time></trkpt><trkpt lat="42.38207614379747" lon="-1.4161868669132915"><ele>469.6666666666667</ele><time>2026-03-31T11:38:36Z</time></trkpt><trkpt lat="42.3821911361462" lon="-1.4159782323528551"><ele>470.33333333333337</ele><time>2026-03-31T11:38:37Z</time></trkpt><trkpt lat="42.38230047086156" lon="-1.415771808466566"><ele>471.0</ele><time>2026-03-31T11:38:38Z</time></trkpt><trkpt lat="42.3824054809946" lon="-1.4155722669769295"><ele>470.66666666666663</ele><time>2026-03-31T11:38:39Z</time></trkpt><trkpt lat="42.38251230221239" lon="-1.4153776612892135"><ele>470.3333333333333</ele><time>2026-03-31T11:38:40Z</time></trkpt><trkpt lat="42.382612204212144" lon="-1.4151830029630128"><ele>470.0</ele><time>2026-03-31T11:38:41Z</time></trkpt><trkpt lat="42.38272322212436" lon="-1.4149792099079523"><ele>470.0</ele><time>2026-03-31T11:38:42Z</time></trkpt><trkpt lat="42.38282723381798" lon="-1.4147876985968388"><ele>470.0</ele><time>2026-03-31T11:38:43Z</time></trkpt><trkpt lat="42.38293312334244" lon="-1.4145972958981543"><ele>470.0</ele><time>2026-03-31T11:38:44Z</time></trkpt><trkpt lat="42.383035275365565" lon="-1.4144048217456513"><ele>470.3333333333333</ele><time>2026-03-31T11:38:45Z</time></trkpt><trkpt lat="42.383140581394294" lon="-1.4142055359170627"><ele>470.66666666666663</ele><time>2026-03-31T11:38:46Z</time></trkpt><trkpt lat="42.38325435080266" lon="-1.4140067218514005"><ele>471.0</ele><time>2026-03-31T11:38:47Z</time></trkpt><trkpt lat="42.38339254690783" lon="-1.4138113079619474"><ele>471.0</ele><time>2026-03-31T11:38:48Z</time></trkpt><trkpt lat="42.3835524422723" lon="-1.4136295677131416"><ele>471.0</ele><time>2026-03-31T11:38:49Z</time></trkpt><trkpt lat="42.38374145791163" lon="-1.413471098532882"><ele>471.0</ele><time>2026-03-31T11:38:50Z</time></trkpt><trkpt lat="42.38395011606182" lon="-1.4133389027242065"><ele>471.5</ele><time>2026-03-31T11:38:51Z</time></trkpt><trkpt lat="42.384171391851396" lon="-1.4132199977074142"><ele>472.0</ele><time>2026-03-31T11:38:52Z</time></trkpt><trkpt lat="42.38439140940095" lon="-1.4130997949808382"><ele>472.0</ele><time>2026-03-31T11:38:53Z</time></trkpt><trkpt lat="42.38461063221911" lon="-1.412975413756098"><ele>472.0</ele><time>2026-03-31T11:38:54Z</time></trkpt><trkpt lat="42.38482906057758" lon="-1.4128494636938091"><ele>472.0</ele><time>2026-03-31T11:38:55Z</time></trkpt><trkpt lat="42.385047841104694" lon="-1.4127186329019548"><ele>472.0</ele><time>2026-03-31T11:38:56Z</time></trkpt><trkpt lat="42.385263475850145" lon="-1.4125921727767254"><ele>472.0</ele><time>2026-03-31T11:38:57Z</time></trkpt><trkpt lat="42.385479216861036" lon="-1.4124655830339348"><ele>472.0</ele><time>2026-03-31T11:38:58Z</time></trkpt><trkpt lat="42.38568804552799" lon="-1.4123347917014284"><ele>472.5</ele><time>2026-03-31T11:38:59Z</time></trkpt><trkpt lat="42.385897017383556" lon="-1.4122044646267404"><ele>473.0</ele><time>2026-03-31T11:39:00Z</time></trkpt><trkpt lat="42.38610730083917" lon="-1.4120785590752114"><ele>473.0</ele><time>2026-03-31T11:39:01Z</time></trkpt><trkpt lat="42.38631412922722" lon="-1.4119477766929625"><ele>473.0</ele><time>2026-03-31T11:39:02Z</time></trkpt><trkpt lat="42.38652589935716" lon="-1.4118229994344078"><ele>473.0</ele><time>2026-03-31T11:39:03Z</time></trkpt><trkpt lat="42.38673841467909" lon="-1.4116918778895116"><ele>473.0</ele><time>2026-03-31T11:39:04Z</time></trkpt><trkpt lat="42.38695086453176" lon="-1.411558836979854"><ele>473.0</ele><time>2026-03-31T11:39:05Z</time></trkpt><trkpt lat="42.38716614977428" lon="-1.4114294848819355"><ele>473.0</ele><time>2026-03-31T11:39:06Z</time></trkpt><trkpt lat="42.38738036815704" lon="-1.4112984149418657"><ele>472.0</ele><time>2026-03-31T11:39:07Z</time></trkpt><trkpt lat="42.387600140750315" lon="-1.411165275546109"><ele>471.0</ele><time>2026-03-31T11:39:08Z</time></trkpt><trkpt lat="42.387829224697285" lon="-1.411027468430519"><ele>472.0</ele><time>2026-03-31T11:39:09Z</time></trkpt><trkpt lat="42.38806454055407" lon="-1.4108853988239662"><ele>473.0</ele><time>2026-03-31T11:39:10Z</time></trkpt><trkpt lat="42.38830231334048" lon="-1.410738938248631"><ele>473.0</ele><time>2026-03-31T11:39:11Z</time></trkpt><trkpt lat="42.38854173779476" lon="-1.4105910843866896"><ele>473.0</ele><time>2026-03-31T11:39:12Z</time></trkpt><trkpt lat="42.38878532157275" lon="-1.4104526636795423"><ele>472.5</ele><time>2026-03-31T11:39:13Z</time></trkpt><trkpt lat="42.38902435672614" lon="-1.4103102198159647"><ele>472.0</ele><time>2026-03-31T11:39:14Z</time></trkpt><trkpt lat="42.38925686387823" lon="-1.410167663849822"><ele>472.0</ele><time>2026-03-31T11:39:15Z</time></trkpt><trkpt lat="42.38948566510835" lon="-1.4100238310154085"><ele>472.0</ele><time>2026-03-31T11:39:16Z</time></trkpt><trkpt lat="42.38971069162045" lon="-1.4098906356418348"><ele>472.5</ele><time>2026-03-31T11:39:17Z</time></trkpt><trkpt lat="42.389938432367394" lon="-1.4097467312497176"><ele>473.0</ele><time>2026-03-31T11:39:18Z</time></trkpt><trkpt lat="42.39016429220008" lon="-1.409619906451717"><ele>473.0</ele><time>2026-03-31T11:39:19Z</time></trkpt><trkpt lat="42.3903941102081" lon="-1.409481111609172"><ele>473.0</ele><time>2026-03-31T11:39:20Z</time></trkpt><trkpt lat="42.39061948555704" lon="-1.4093421631567171"><ele>473.0</ele><time>2026-03-31T11:39:21Z</time></trkpt><trkpt lat="42.39084943958018" lon="-1.409198428256697"><ele>473.0</ele><time>2026-03-31T11:39:22Z</time></trkpt><trkpt lat="42.39108463791152" lon="-1.4090547074954083"><ele>473.0</ele><time>2026-03-31T11:39:23Z</time></trkpt><trkpt lat="42.3913223874971" lon="-1.408907483001209"><ele>473.0</ele><time>2026-03-31T11:39:24Z</time></trkpt><trkpt lat="42.39156072801007" lon="-1.4087624110888952"><ele>473.0</ele><time>2026-03-31T11:39:25Z</time></trkpt><trkpt lat="42.3917938556628" lon="-1.4086194237639236"><ele>473.0</ele><time>2026-03-31T11:39:26Z</time></trkpt><trkpt lat="42.392029742368656" lon="-1.4084806795743767"><ele>473.0</ele><time>2026-03-31T11:39:27Z</time></trkpt><trkpt lat="42.392264798584044" lon="-1.4083392211825132"><ele>473.0</ele><time>2026-03-31T11:39:28Z</time></trkpt><trkpt lat="42.39250002344194" lon="-1.40819338779561"><ele>473.0</ele><time>2026-03-31T11:39:29Z</time></trkpt><trkpt lat="42.39273401860862" lon="-1.4080496716481954"><ele>473.0</ele><time>2026-03-31T11:39:30Z</time></trkpt><trkpt lat="42.39296019880904" lon="-1.4079115728535048"><ele>472.5</ele><time>2026-03-31T11:39:31Z</time></trkpt><trkpt lat="42.39317600669189" lon="-1.4077817447225702"><ele>472.0</ele><time>2026-03-31T11:39:32Z</time></trkpt><trkpt lat="42.3933858773138" lon="-1.407655343349179"><ele>472.0</ele><time>2026-03-31T11:39:33Z</time></trkpt><trkpt lat="42.39355889315998" lon="-1.4075581470625989"><ele>472.0</ele><time>2026-03-31T11:39:34Z</time></trkpt><trkpt lat="42.39373728440275" lon="-1.4075070792011959"><ele>472.0</ele><time>2026-03-31T11:39:35Z</time></trkpt><trkpt lat="42.39393073941333" lon="-1.4075255243444726"><ele>471.5</ele><time>2026-03-31T11:39:36Z</time></trkpt><trkpt lat="42.394093504595084" lon="-1.4075906088716552"><ele>471.0</ele><time>2026-03-31T11:39:37Z</time></trkpt><trkpt lat="42.39422713486395" lon="-1.4076021537258125"><ele>470.5</ele><time>2026-03-31T11:39:38Z</time></trkpt><trkpt lat="42.394346231869385" lon="-1.4075143290540315"><ele>470.0</ele><time>2026-03-31T11:39:39Z</time></trkpt><trkpt lat="42.3944313838598" lon="-1.4073482929408037"><ele>469.66666666666663</ele><time>2026-03-31T11:39:40Z</time></trkpt><trkpt lat="42.39448877741171" lon="-1.4071349819016716"><ele>469.33333333333337</ele><time>2026-03-31T11:39:41Z</time></trkpt><trkpt lat="42.394528019264726" lon="-1.406901300923969"><ele>469.0</ele><time>2026-03-31T11:39:42Z</time></trkpt><trkpt lat="42.394606411222256" lon="-1.4066720920924354"><ele>467.6666666666667</ele><time>2026-03-31T11:39:43Z</time></trkpt><trkpt lat="42.39470474861173" lon="-1.4064476873195009"><ele>466.33333333333337</ele><time>2026-03-31T11:39:44Z</time></trkpt><trkpt lat="42.394782904405766" lon="-1.4062429669574386"><ele>465.0</ele><time>2026-03-31T11:39:45Z</time></trkpt><trkpt lat="42.39484955994327" lon="-1.4060870191126678"><ele>465.0</ele><time>2026-03-31T11:39:46Z</time></trkpt><trkpt lat="42.39495520239521" lon="-1.4059764758173101"><ele>465.0</ele><time>2026-03-31T11:39:47Z</time></trkpt><trkpt lat="42.395107163154634" lon="-1.4059448530572636"><ele>465.0</ele><time>2026-03-31T11:39:48Z</time></trkpt><trkpt lat="42.39529100484654" lon="-1.405917302046622"><ele>465.0</ele><time>2026-03-31T11:39:49Z</time></trkpt><trkpt lat="42.39547929319932" lon="-1.405808701022322"><ele>465.0</ele><time>2026-03-31T11:39:50Z</time></trkpt><trkpt lat="42.395654853405674" lon="-1.4056527540288772"><ele>465.0</ele><time>2026-03-31T11:39:51Z</time></trkpt><trkpt lat="42.395810480918364" lon="-1.4055229325504945"><ele>463.5</ele><time>2026-03-31T11:39:52Z</time></trkpt><trkpt lat="42.39596354665579" lon="-1.4054475467052192"><ele>462.0</ele><time>2026-03-31T11:39:53Z</time></trkpt><trkpt lat="42.39611142414765" lon="-1.4054210988780986"><ele>460.5</ele><time>2026-03-31T11:39:54Z</time></trkpt><trkpt lat="42.396225707619095" lon="-1.4053619518954656"><ele>459.0</ele><time>2026-03-31T11:39:55Z</time></trkpt><trkpt lat="42.39630378785171" lon="-1.4052302347229828"><ele>459.0</ele><time>2026-03-31T11:39:56Z</time></trkpt><trkpt lat="42.396341944661856" lon="-1.4050519253832043"><ele>459.0</ele><time>2026-03-31T11:39:57Z</time></trkpt><trkpt lat="42.39632213311682" lon="-1.4048484008764965"><ele>459.0</ele><time>2026-03-31T11:39:58Z</time></trkpt><trkpt lat="42.396254607793146" lon="-1.4046555263158589"><ele>459.0</ele><time>2026-03-31T11:39:59Z</time></trkpt><trkpt lat="42.396184703637964" lon="-1.4044595419309125"><ele>456.0</ele><time>2026-03-31T11:40:00Z</time></trkpt><trkpt lat="42.39614623012578" lon="-1.4042128722611604"><ele>453.0</ele><time>2026-03-31T11:40:01Z</time></trkpt><trkpt lat="42.39610406192891" lon="-1.4039929810435987"><ele>450.0</ele><time>2026-03-31T11:40:02Z</time></trkpt><trkpt lat="42.396052864413065" lon="-1.4038087090972315"><ele>449.25</ele><time>2026-03-31T11:40:03Z</time></trkpt><trkpt lat="42.396044632251005" lon="-1.4036396730243512"><ele>448.5</ele><time>2026-03-31T11:40:04Z</time></trkpt><trkpt lat="42.39611298556771" lon="-1.4034798802873927"><ele>447.75</ele><time>2026-03-31T11:40:05Z</time></trkpt><trkpt lat="42.39621362366959" lon="-1.4033218368103855"><ele>447.0</ele><time>2026-03-31T11:40:06Z</time></trkpt><trkpt lat="42.3962780165932" lon="-1.4031329670318113"><ele>446.0</ele><time>2026-03-31T11:40:07Z</time></trkpt><trkpt lat="42.3962881170527" lon="-1.4029091930267124"><ele>445.0</ele><time>2026-03-31T11:40:08Z</time></trkpt><trkpt lat="42.396261999797744" lon="-1.4026368583789306"><ele>444.0</ele><time>2026-03-31T11:40:09Z</time></trkpt><trkpt lat="42.396214603015764" lon="-1.4023471669627787"><ele>441.0</ele><time>2026-03-31T11:40:10Z</time></trkpt><trkpt lat="42.39617346437273" lon="-1.4020823235864033"><ele>438.0</ele><time>2026-03-31T11:40:11Z</time></trkpt><trkpt lat="42.39617992041628" lon="-1.401792202639756"><ele>435.0</ele><time>2026-03-31T11:40:12Z</time></trkpt><trkpt lat="42.39616820372592" lon="-1.4015111647927858"><ele>433.0</ele><time>2026-03-31T11:40:13Z</time></trkpt><trkpt lat="42.39616248236142" lon="-1.401236423076664"><ele>431.0</ele><time>2026-03-31T11:40:14Z</time></trkpt><trkpt lat="42.39615539892831" lon="-1.400966001505327"><ele>429.0</ele><time>2026-03-31T11:40:15Z</time></trkpt><trkpt lat="42.3961391507851" lon="-1.4007071050054307"><ele>427.66666666666663</ele><time>2026-03-31T11:40:16Z</time></trkpt><trkpt lat="42.39613103997059" lon="-1.400458284368804"><ele>426.3333333333333</ele><time>2026-03-31T11:40:17Z</time></trkpt><trkpt lat="42.39614068403047" lon="-1.40021629345759"><ele>425.0</ele><time>2026-03-31T11:40:18Z</time></trkpt><trkpt lat="42.396176123687326" lon="-1.3999661090610467"><ele>425.0</ele><time>2026-03-31T11:40:19Z</time></trkpt><trkpt lat="42.39623135046435" lon="-1.39970902045928"><ele>425.0</ele><time>2026-03-31T11:40:20Z</time></trkpt><trkpt lat="42.39631238575726" lon="-1.3994584563535477"><ele>425.0</ele><time>2026-03-31T11:40:21Z</time></trkpt><trkpt lat="42.396412916928796" lon="-1.3992179278009185"><ele>421.66666666666663</ele><time>2026-03-31T11:40:22Z</time></trkpt><trkpt lat="42.39650797005669" lon="-1.3990108359784628"><ele>418.33333333333337</ele><time>2026-03-31T11:40:23Z</time></trkpt><trkpt lat="42.396596734031334" lon="-1.3988331033448642"><ele>415.0</ele><time>2026-03-31T11:40:24Z</time></trkpt><trkpt lat="42.39667242132877" lon="-1.3986776064987236"><ele>414.8</ele><time>2026-03-31T11:40:25Z</time></trkpt><trkpt lat="42.39673849303195" lon="-1.3985281927613147"><ele>414.6</ele><time>2026-03-31T11:40:26Z</time></trkpt><trkpt lat="42.396792205711456" lon="-1.3984035720310837"><ele>414.4</ele><time>2026-03-31T11:40:27Z</time></trkpt><trkpt lat="42.39683014378815" lon="-1.3983157120398897"><ele>414.2</ele><time>2026-03-31T11:40:28Z</time></trkpt><trkpt lat="42.3968425556279" lon="-1.398185879124491"><ele>414.0</ele><time>2026-03-31T11:40:30Z</time></trkpt><trkpt lat="42.396892898003266" lon="-1.398059948371046"><ele>413.66666666666663</ele><time>2026-03-31T11:42:18Z</time></trkpt><trkpt lat="42.39696196538643" lon="-1.3979319569035609"><ele>413.3333333333333</ele><time>2026-03-31T11:42:19Z</time></trkpt><trkpt lat="42.39703632782091" lon="-1.3977410506507866"><ele>413.0</ele><time>2026-03-31T11:42:20Z</time></trkpt><trkpt lat="42.397119346367" lon="-1.3975320587320958"><ele>411.0</ele><time>2026-03-31T11:42:21Z</time></trkpt><trkpt lat="42.39720846168263" lon="-1.397301046963008"><ele>409.0</ele><time>2026-03-31T11:42:22Z</time></trkpt><trkpt lat="42.3973017350065" lon="-1.397049430322425"><ele>407.0</ele><time>2026-03-31T11:42:23Z</time></trkpt><trkpt lat="42.397416602153925" lon="-1.3967687291226116"><ele>406.5</ele><time>2026-03-31T11:42:24Z</time></trkpt><trkpt lat="42.397530747381616" lon="-1.3964836226470279"><ele>406.0</ele><time>2026-03-31T11:42:25Z</time></trkpt><trkpt lat="42.39763561875677" lon="-1.3962138496947043"><ele>405.6666666666667</ele><time>2026-03-31T11:42:26Z</time></trkpt><trkpt lat="42.39773915785304" lon="-1.3959486851106655"><ele>405.33333333333337</ele><time>2026-03-31T11:42:27Z</time></trkpt><trkpt lat="42.39784413628772" lon="-1.3956838195385546"><ele>405.0</ele><time>2026-03-31T11:42:28Z</time></trkpt><trkpt lat="42.397948251497226" lon="-1.3954163789155707"><ele>403.66666666666663</ele><time>2026-03-31T11:42:29Z</time></trkpt><trkpt lat="42.398051525069754" lon="-1.3951563051266613"><ele>402.3333333333333</ele><time>2026-03-31T11:42:30Z</time></trkpt><trkpt lat="42.39815237674542" lon="-1.3949038747093245"><ele>401.0</ele><time>2026-03-31T11:42:31Z</time></trkpt><trkpt lat="42.39825078328328" lon="-1.3946617502424876"><ele>400.3333333333333</ele><time>2026-03-31T11:42:32Z</time></trkpt><trkpt lat="42.39833839909893" lon="-1.3944442549220037"><ele>399.66666666666663</ele><time>2026-03-31T11:42:33Z</time></trkpt><trkpt lat="42.39842860199177" lon="-1.3942204636722706"><ele>399.0</ele><time>2026-03-31T11:42:34Z</time></trkpt><trkpt lat="42.39851849121294" lon="-1.39400369384573"><ele>398.33333333333337</ele><time>2026-03-31T11:42:35Z</time></trkpt><trkpt lat="42.3986046306501" lon="-1.3937927656645397"><ele>397.6666666666667</ele><time>2026-03-31T11:42:36Z</time></trkpt><trkpt lat="42.39869185700121" lon="-1.3935691657643212"><ele>397.0</ele><time>2026-03-31T11:42:37Z</time></trkpt><trkpt lat="42.39878169849471" lon="-1.3933461031724763"><ele>396.33333333333337</ele><time>2026-03-31T11:42:38Z</time></trkpt><trkpt lat="42.39889513048787" lon="-1.3931332316331573"><ele>395.66666666666663</ele><time>2026-03-31T11:42:39Z</time></trkpt><trkpt lat="42.39902009432256" lon="-1.3929310587017745"><ele>395.0</ele><time>2026-03-31T11:42:40Z</time></trkpt><trkpt lat="42.39915367059222" lon="-1.392742830868603"><ele>394.0</ele><time>2026-03-31T11:42:41Z</time></trkpt><trkpt lat="42.39930167750687" lon="-1.3925732417341758"><ele>393.0</ele><time>2026-03-31T11:42:42Z</time></trkpt><trkpt lat="42.3994792720246" lon="-1.3924386025044908"><ele>392.0</ele><time>2026-03-31T11:42:43Z</time></trkpt><trkpt lat="42.39969047443026" lon="-1.3923053013673738"><ele>391.5</ele><time>2026-03-31T11:42:44Z</time></trkpt><trkpt lat="42.39990446495462" lon="-1.3921686586572424"><ele>391.0</ele><time>2026-03-31T11:42:45Z</time></trkpt><trkpt lat="42.400128798574194" lon="-1.3920300876834937"><ele>391.0</ele><time>2026-03-31T11:42:46Z</time></trkpt><trkpt lat="42.40034049102046" lon="-1.3918932480119803"><ele>391.0</ele><time>2026-03-31T11:42:47Z</time></trkpt><trkpt lat="42.40054233444366" lon="-1.3917493594816681"><ele>390.6666666666667</ele><time>2026-03-31T11:42:48Z</time></trkpt><trkpt lat="42.400740308080564" lon="-1.3916252823344237"><ele>390.33333333333337</ele><time>2026-03-31T11:42:49Z</time></trkpt><trkpt lat="42.400939055942224" lon="-1.391522973508923"><ele>390.0</ele><time>2026-03-31T11:42:50Z</time></trkpt><trkpt lat="42.40114720064267" lon="-1.3914670463145107"><ele>390.0</ele><time>2026-03-31T11:42:51Z</time></trkpt><trkpt lat="42.40136589054683" lon="-1.391461553007657"><ele>390.0</ele><time>2026-03-31T11:42:52Z</time></trkpt><trkpt lat="42.40157978791603" lon="-1.3915007688168777"><ele>390.0</ele><time>2026-03-31T11:42:53Z</time></trkpt><trkpt lat="42.40178552373627" lon="-1.3915887590198952"><ele>390.0</ele><time>2026-03-31T11:42:54Z</time></trkpt><trkpt lat="42.40197792917891" lon="-1.3917074147975794"><ele>390.0</ele><time>2026-03-31T11:42:55Z</time></trkpt><trkpt lat="42.40217605878033" lon="-1.3918326997856274"><ele>390.0</ele><time>2026-03-31T11:42:56Z</time></trkpt><trkpt lat="42.40236016932267" lon="-1.3919415559241821"><ele>392.33333333333337</ele><time>2026-03-31T11:42:57Z</time></trkpt><trkpt lat="42.402521178119834" lon="-1.3920283593497043"><ele>394.6666666666667</ele><time>2026-03-31T11:42:58Z</time></trkpt><trkpt lat="42.4026761638572" lon="-1.3920921894358593"><ele>397.0</ele><time>2026-03-31T11:42:59Z</time></trkpt><trkpt lat="42.402834676108995" lon="-1.3920789105963056"><ele>397.0</ele><time>2026-03-31T11:43:00Z</time></trkpt><trkpt lat="42.40299137689109" lon="-1.3920388447923702"><ele>397.0</ele><time>2026-03-31T11:43:01Z</time></trkpt><trkpt lat="42.403143382915715" lon="-1.39195040424305"><ele>397.0</ele><time>2026-03-31T11:43:02Z</time></trkpt><trkpt lat="42.403280741783824" lon="-1.3918258886494435"><ele>397.0</ele><time>2026-03-31T11:43:03Z</time></trkpt><trkpt lat="42.403425279398085" lon="-1.391717347948889"><ele>397.0</ele><time>2026-03-31T11:43:04Z</time></trkpt><trkpt lat="42.40355956776551" lon="-1.3915733125192877"><ele>397.0</ele><time>2026-03-31T11:43:05Z</time></trkpt><trkpt lat="42.40369477468942" lon="-1.3914323328386808"><ele>396.6666666666667</ele><time>2026-03-31T11:43:06Z</time></trkpt><trkpt lat="42.40386213340783" lon="-1.391272044335923"><ele>396.33333333333337</ele><time>2026-03-31T11:43:07Z</time></trkpt><trkpt lat="42.4040364622831" lon="-1.3911050790700215"><ele>396.0</ele><time>2026-03-31T11:43:08Z</time></trkpt><trkpt lat="42.40420784260406" lon="-1.390938292551938"><ele>396.0</ele><time>2026-03-31T11:43:09Z</time></trkpt><trkpt lat="42.404393130370075" lon="-1.390753321101966"><ele>396.0</ele><time>2026-03-31T11:43:10Z</time></trkpt><trkpt lat="42.40457357511211" lon="-1.390575353452902"><ele>396.0</ele><time>2026-03-31T11:43:11Z</time></trkpt><trkpt lat="42.404755754862315" lon="-1.390398036308007"><ele>396.0</ele><time>2026-03-31T11:43:12Z</time></trkpt><trkpt lat="42.40494483602775" lon="-1.390215648833781"><ele>396.0</ele><time>2026-03-31T11:43:13Z</time></trkpt><trkpt lat="42.40514164428934" lon="-1.3900297661381662"><ele>396.0</ele><time>2026-03-31T11:43:14Z</time></trkpt><trkpt lat="42.40533331830261" lon="-1.38984461784312"><ele>397.0</ele><time>2026-03-31T11:43:15Z</time></trkpt><trkpt lat="42.405525807029086" lon="-1.3896566715261651"><ele>398.0</ele><time>2026-03-31T11:43:16Z</time></trkpt><trkpt lat="42.40572048925271" lon="-1.3894679251304067"><ele>398.0</ele><time>2026-03-31T11:43:17Z</time></trkpt><trkpt lat="42.405919289485894" lon="-1.389277415749261"><ele>398.0</ele><time>2026-03-31T11:43:18Z</time></trkpt><trkpt lat="42.406111794360484" lon="-1.3890875123831585"><ele>398.0</ele><time>2026-03-31T11:43:19Z</time></trkpt><trkpt lat="42.40631317704369" lon="-1.3888926032384388"><ele>398.0</ele><time>2026-03-31T11:43:20Z</time></trkpt><trkpt lat="42.40651405995652" lon="-1.3886939033585435"><ele>397.5</ele><time>2026-03-31T11:43:21Z</time></trkpt><trkpt lat="42.40671542501642" lon="-1.3884965770903555"><ele>397.0</ele><time>2026-03-31T11:43:22Z</time></trkpt><trkpt lat="42.4069260975973" lon="-1.38829434435401"><ele>397.0</ele><time>2026-03-31T11:43:23Z</time></trkpt><trkpt lat="42.407137148374076" lon="-1.3880882015273726"><ele>397.0</ele><time>2026-03-31T11:43:24Z</time></trkpt><trkpt lat="42.40734838652767" lon="-1.3878764454627355"><ele>398.5</ele><time>2026-03-31T11:43:25Z</time></trkpt><trkpt lat="42.40756676281213" lon="-1.3876661899579537"><ele>400.0</ele><time>2026-03-31T11:43:26Z</time></trkpt><trkpt lat="42.40777285979549" lon="-1.3874638841609324"><ele>400.0</ele><time>2026-03-31T11:43:27Z</time></trkpt><trkpt lat="42.40798566924214" lon="-1.3872609829062215"><ele>400.0</ele><time>2026-03-31T11:43:28Z</time></trkpt><trkpt lat="42.40818982590646" lon="-1.3870559100959243"><ele>400.5</ele><time>2026-03-31T11:43:29Z</time></trkpt><trkpt lat="42.40840169211741" lon="-1.3868454542445077"><ele>401.0</ele><time>2026-03-31T11:43:30Z</time></trkpt><trkpt lat="42.408617476883286" lon="-1.3866360378676061"><ele>400.0</ele><time>2026-03-31T11:43:31Z</time></trkpt><trkpt lat="42.408844341789624" lon="-1.3864163939868983"><ele>399.0</ele><time>2026-03-31T11:43:32Z</time></trkpt><trkpt lat="42.40905600641094" lon="-1.3862035298404185"><ele>399.0</ele><time>2026-03-31T11:43:33Z</time></trkpt><trkpt lat="42.40927021936685" lon="-1.3859935221013504"><ele>399.0</ele><time>2026-03-31T11:43:34Z</time></trkpt><trkpt lat="42.40948572890647" lon="-1.3857802465888325"><ele>399.5</ele><time>2026-03-31T11:43:35Z</time></trkpt><trkpt lat="42.40970358920788" lon="-1.3855690341422697"><ele>400.0</ele><time>2026-03-31T11:43:36Z</time></trkpt><trkpt lat="42.40991410729971" lon="-1.385359694453959"><ele>400.0</ele><time>2026-03-31T11:43:37Z</time></trkpt><trkpt lat="42.41012224314903" lon="-1.3851547896030885"><ele>400.0</ele><time>2026-03-31T11:43:38Z</time></trkpt><trkpt lat="42.41032774704239" lon="-1.3849526007358366"><ele>400.0</ele><time>2026-03-31T11:43:39Z</time></trkpt><trkpt lat="42.41053030167717" lon="-1.3847551057479874"><ele>400.0</ele><time>2026-03-31T11:43:40Z</time></trkpt><trkpt lat="42.41072885267249" lon="-1.384568110419218"><ele>400.0</ele><time>2026-03-31T11:43:41Z</time></trkpt><trkpt lat="42.410921208709404" lon="-1.384376394629667"><ele>400.0</ele><time>2026-03-31T11:43:42Z</time></trkpt><trkpt lat="42.41110962753772" lon="-1.384161592824674"><ele>400.0</ele><time>2026-03-31T11:43:43Z</time></trkpt><trkpt lat="42.41130098748345" lon="-1.3839237608868764"><ele>400.0</ele><time>2026-03-31T11:43:44Z</time></trkpt><trkpt lat="42.411490821949684" lon="-1.3836782191027714"><ele>401.5</ele><time>2026-03-31T11:43:45Z</time></trkpt><trkpt lat="42.41167409381826" lon="-1.3834431951424613"><ele>403.0</ele><time>2026-03-31T11:43:46Z</time></trkpt><trkpt lat="42.41185282640478" lon="-1.3832083443018506"><ele>402.5</ele><time>2026-03-31T11:43:47Z</time></trkpt><trkpt lat="42.412028083180786" lon="-1.3829729018022194"><ele>402.0</ele><time>2026-03-31T11:43:48Z</time></trkpt><trkpt lat="42.41219725500791" lon="-1.3827400287576097"><ele>402.0</ele><time>2026-03-31T11:43:49Z</time></trkpt><trkpt lat="42.4123747263657" lon="-1.3825042860445296"><ele>402.0</ele><time>2026-03-31T11:43:50Z</time></trkpt><trkpt lat="42.412545966446956" lon="-1.3822789177725068"><ele>404.0</ele><time>2026-03-31T11:43:51Z</time></trkpt><trkpt lat="42.41271543900862" lon="-1.382063912402622"><ele>406.0</ele><time>2026-03-31T11:43:52Z</time></trkpt><trkpt lat="42.41290534165756" lon="-1.381860591868279"><ele>402.5</ele><time>2026-03-31T11:43:53Z</time></trkpt><trkpt lat="42.413122733891846" lon="-1.3816554054193784"><ele>399.0</ele><time>2026-03-31T11:43:54Z</time></trkpt><trkpt lat="42.41336325547641" lon="-1.381441253221588"><ele>400.0</ele><time>2026-03-31T11:43:55Z</time></trkpt><trkpt lat="42.41359201799297" lon="-1.381236312402159"><ele>401.0</ele><time>2026-03-31T11:43:56Z</time></trkpt><trkpt lat="42.413823259034615" lon="-1.3810314939495356"><ele>401.5</ele><time>2026-03-31T11:43:57Z</time></trkpt><trkpt lat="42.41404944300327" lon="-1.380836856074024"><ele>402.0</ele><time>2026-03-31T11:43:58Z</time></trkpt><trkpt lat="42.414282006176144" lon="-1.3806669759290826"><ele>402.5</ele><time>2026-03-31T11:43:59Z</time></trkpt><trkpt lat="42.414515124406414" lon="-1.3805100979967089"><ele>403.0</ele><time>2026-03-31T11:44:00Z</time></trkpt><trkpt lat="42.414743946661254" lon="-1.3803557577473855"><ele>403.0</ele><time>2026-03-31T11:44:01Z</time></trkpt><trkpt lat="42.41495985625533" lon="-1.3802082760271874"><ele>403.0</ele><time>2026-03-31T11:44:02Z</time></trkpt><trkpt lat="42.41516785410246" lon="-1.3800573609344005"><ele>403.0</ele><time>2026-03-31T11:44:03Z</time></trkpt><trkpt lat="42.41537494965233" lon="-1.3799115090181837"><ele>403.0</ele><time>2026-03-31T11:44:04Z</time></trkpt><trkpt lat="42.41558595836167" lon="-1.3797611948226725"><ele>404.5</ele><time>2026-03-31T11:44:05Z</time></trkpt><trkpt lat="42.415799712512396" lon="-1.3796187351292064"><ele>406.0</ele><time>2026-03-31T11:44:06Z</time></trkpt><trkpt lat="42.41601945576427" lon="-1.3794755120101745"><ele>406.0</ele><time>2026-03-31T11:44:07Z</time></trkpt><trkpt lat="42.416234202156694" lon="-1.379331949982942"><ele>406.0</ele><time>2026-03-31T11:44:08Z</time></trkpt><trkpt lat="42.41644815489428" lon="-1.379167547872853"><ele>404.5</ele><time>2026-03-31T11:44:09Z</time></trkpt><trkpt lat="42.41665771654697" lon="-1.379017805502942"><ele>403.0</ele><time>2026-03-31T11:44:10Z</time></trkpt><trkpt lat="42.41686696124825" lon="-1.3788769328700923"><ele>404.5</ele><time>2026-03-31T11:44:11Z</time></trkpt><trkpt lat="42.41707281014217" lon="-1.37873276711405"><ele>406.0</ele><time>2026-03-31T11:44:12Z</time></trkpt><trkpt lat="42.41727359670024" lon="-1.3785974416362003"><ele>406.0</ele><time>2026-03-31T11:44:13Z</time></trkpt><trkpt lat="42.417484793369965" lon="-1.3784798722067086"><ele>406.0</ele><time>2026-03-31T11:44:14Z</time></trkpt><trkpt lat="42.41770331451135" lon="-1.3784205538901386"><ele>406.0</ele><time>2026-03-31T11:44:15Z</time></trkpt><trkpt lat="42.41793918256643" lon="-1.3783901457706185"><ele>406.0</ele><time>2026-03-31T11:44:16Z</time></trkpt><trkpt lat="42.418177074868105" lon="-1.3783660849533879"><ele>407.0</ele><time>2026-03-31T11:44:17Z</time></trkpt><trkpt lat="42.418406152704186" lon="-1.3783272093925456"><ele>408.0</ele><time>2026-03-31T11:44:18Z</time></trkpt><trkpt lat="42.41863867941548" lon="-1.3782814769220053"><ele>407.0</ele><time>2026-03-31T11:44:19Z</time></trkpt><trkpt lat="42.418873540747526" lon="-1.3782355663459869"><ele>406.0</ele><time>2026-03-31T11:44:20Z</time></trkpt><trkpt lat="42.419107979191686" lon="-1.3781906854733674"><ele>406.0</ele><time>2026-03-31T11:44:21Z</time></trkpt><trkpt lat="42.41933500866521" lon="-1.3781493096474486"><ele>406.0</ele><time>2026-03-31T11:44:22Z</time></trkpt><trkpt lat="42.419568540537654" lon="-1.3781019025476"><ele>406.0</ele><time>2026-03-31T11:44:23Z</time></trkpt><trkpt lat="42.41979344475749" lon="-1.3780537621504383"><ele>406.0</ele><time>2026-03-31T11:44:24Z</time></trkpt><trkpt lat="42.420010004381595" lon="-1.3780083819500168"><ele>406.0</ele><time>2026-03-31T11:44:25Z</time></trkpt><trkpt lat="42.42022760855228" lon="-1.3779583560336512"><ele>407.5</ele><time>2026-03-31T11:44:26Z</time></trkpt><trkpt lat="42.42044861785431" lon="-1.3778851681152373"><ele>409.0</ele><time>2026-03-31T11:44:27Z</time></trkpt><trkpt lat="42.42066089376086" lon="-1.377783525199626"><ele>409.0</ele><time>2026-03-31T11:44:28Z</time></trkpt><trkpt lat="42.4208712180533" lon="-1.3776780427404256"><ele>409.0</ele><time>2026-03-31T11:44:29Z</time></trkpt><trkpt lat="42.421085455210616" lon="-1.3775832209232348"><ele>409.0</ele><time>2026-03-31T11:44:30Z</time></trkpt><trkpt lat="42.42130067064065" lon="-1.3774887790533579"><ele>409.0</ele><time>2026-03-31T11:44:31Z</time></trkpt><trkpt lat="42.421513648830796" lon="-1.3773919767527223"><ele>409.0</ele><time>2026-03-31T11:44:32Z</time></trkpt><trkpt lat="42.42173126221562" lon="-1.3772967420271665"><ele>409.0</ele><time>2026-03-31T11:44:33Z</time></trkpt><trkpt lat="42.42194614939358" lon="-1.3772006775880292"><ele>410.0</ele><time>2026-03-31T11:44:34Z</time></trkpt><trkpt lat="42.42216227336124" lon="-1.3771010505538348"><ele>411.0</ele><time>2026-03-31T11:44:35Z</time></trkpt><trkpt lat="42.422377430373" lon="-1.3770084174054085"><ele>411.0</ele><time>2026-03-31T11:44:36Z</time></trkpt><trkpt lat="42.42259262278461" lon="-1.3769132742141121"><ele>411.0</ele><time>2026-03-31T11:44:37Z</time></trkpt><trkpt lat="42.4227944401382" lon="-1.376821521220574"><ele>411.0</ele><time>2026-03-31T11:44:38Z</time></trkpt><trkpt lat="42.42300364486556" lon="-1.3767308330997128"><ele>410.66666666666663</ele><time>2026-03-31T11:44:39Z</time></trkpt><trkpt lat="42.423200965291706" lon="-1.3766290566670023"><ele>410.3333333333333</ele><time>2026-03-31T11:44:40Z</time></trkpt><trkpt lat="42.42340447184955" lon="-1.376519584711065"><ele>410.0</ele><time>2026-03-31T11:44:41Z</time></trkpt><trkpt lat="42.42359554619036" lon="-1.376336130741586"><ele>410.0</ele><time>2026-03-31T11:44:42Z</time></trkpt><trkpt lat="42.42379852960567" lon="-1.3761507442225336"><ele>410.0</ele><time>2026-03-31T11:44:43Z</time></trkpt><trkpt lat="42.42401680123658" lon="-1.3759617886582034"><ele>409.0</ele><time>2026-03-31T11:44:44Z</time></trkpt><trkpt lat="42.424243602579246" lon="-1.3757438799886461"><ele>408.0</ele><time>2026-03-31T11:44:45Z</time></trkpt><trkpt lat="42.42446609880578" lon="-1.375539540122123"><ele>410.0</ele><time>2026-03-31T11:44:46Z</time></trkpt><trkpt lat="42.424682540152766" lon="-1.3753356247639124"><ele>412.0</ele><time>2026-03-31T11:44:47Z</time></trkpt><trkpt lat="42.42491302075093" lon="-1.375119991443596"><ele>412.0</ele><time>2026-03-31T11:44:48Z</time></trkpt><trkpt lat="42.42515089416243" lon="-1.3749029666634633"><ele>412.0</ele><time>2026-03-31T11:44:49Z</time></trkpt><trkpt lat="42.425393533668746" lon="-1.374684114521353"><ele>411.0</ele><time>2026-03-31T11:44:50Z</time></trkpt><trkpt lat="42.42561009630187" lon="-1.374485575487672"><ele>410.0</ele><time>2026-03-31T11:44:51Z</time></trkpt><trkpt lat="42.425815785205074" lon="-1.374291503482187"><ele>410.0</ele><time>2026-03-31T11:44:52Z</time></trkpt><trkpt lat="42.426012019416156" lon="-1.374092740025147"><ele>410.0</ele><time>2026-03-31T11:44:53Z</time></trkpt><trkpt lat="42.426207645193905" lon="-1.3738830411942025"><ele>412.0</ele><time>2026-03-31T11:44:54Z</time></trkpt><trkpt lat="42.42640111017645" lon="-1.373666209976086"><ele>414.0</ele><time>2026-03-31T11:44:55Z</time></trkpt><trkpt lat="42.42658044374788" lon="-1.3734617655428727"><ele>414.0</ele><time>2026-03-31T11:44:56Z</time></trkpt><trkpt lat="42.42674527874524" lon="-1.3732741302769291"><ele>414.0</ele><time>2026-03-31T11:44:57Z</time></trkpt><trkpt lat="42.426899072821186" lon="-1.3731026146871017"><ele>414.0</ele><time>2026-03-31T11:44:58Z</time></trkpt><trkpt lat="42.42706892624451" lon="-1.372921276637203"><ele>414.5</ele><time>2026-03-31T11:44:59Z</time></trkpt><trkpt lat="42.42726806616714" lon="-1.3727635122628643"><ele>415.0</ele><time>2026-03-31T11:45:00Z</time></trkpt><trkpt lat="42.42749057164238" lon="-1.372625229248114"><ele>415.0</ele><time>2026-03-31T11:45:01Z</time></trkpt><trkpt lat="42.427679017088266" lon="-1.3725120872847727"><ele>415.0</ele><time>2026-03-31T11:45:02Z</time></trkpt><trkpt lat="42.42784921637489" lon="-1.37240145749057"><ele>415.0</ele><time>2026-03-31T11:45:03Z</time></trkpt><trkpt lat="42.4280011347497" lon="-1.3722936382152298"><ele>415.6666666666667</ele><time>2026-03-31T11:45:04Z</time></trkpt><trkpt lat="42.42816549219351" lon="-1.372212401049575"><ele>416.33333333333337</ele><time>2026-03-31T11:45:05Z</time></trkpt><trkpt lat="42.428361842591826" lon="-1.3721814259266274"><ele>417.0</ele><time>2026-03-31T11:45:06Z</time></trkpt><trkpt lat="42.42857986426054" lon="-1.3721972618576432"><ele>418.5</ele><time>2026-03-31T11:45:07Z</time></trkpt><trkpt lat="42.42880132823873" lon="-1.3722601378273709"><ele>420.0</ele><time>2026-03-31T11:45:08Z</time></trkpt><trkpt lat="42.429018523230944" lon="-1.3723566408299501"><ele>420.33333333333337</ele><time>2026-03-31T11:45:09Z</time></trkpt><trkpt lat="42.4292216051016" lon="-1.3724806172354225"><ele>420.6666666666667</ele><time>2026-03-31T11:45:10Z</time></trkpt><trkpt lat="42.42941986737618" lon="-1.3726084512013998"><ele>421.0</ele><time>2026-03-31T11:45:11Z</time></trkpt><trkpt lat="42.42960577163882" lon="-1.3727023098177193"><ele>421.33333333333337</ele><time>2026-03-31T11:45:12Z</time></trkpt><trkpt lat="42.42977131121404" lon="-1.3727891412826851"><ele>421.66666666666663</ele><time>2026-03-31T11:45:13Z</time></trkpt><trkpt lat="42.429919906362386" lon="-1.372858766383043"><ele>422.0</ele><time>2026-03-31T11:45:14Z</time></trkpt><trkpt lat="42.43008252892924" lon="-1.3728446946128636"><ele>422.0</ele><time>2026-03-31T11:45:15Z</time></trkpt><trkpt lat="42.4302478184952" lon="-1.3727869121787881"><ele>422.0</ele><time>2026-03-31T11:45:16Z</time></trkpt><trkpt lat="42.4304214415166" lon="-1.3726617422674077"><ele>422.0</ele><time>2026-03-31T11:45:17Z</time></trkpt><trkpt lat="42.43060839025464" lon="-1.3725401416828964"><ele>422.3333333333333</ele><time>2026-03-31T11:45:18Z</time></trkpt><trkpt lat="42.430796853994536" lon="-1.372384753552244"><ele>422.66666666666663</ele><time>2026-03-31T11:45:19Z</time></trkpt><trkpt lat="42.43098740994054" lon="-1.3722657857691616"><ele>423.0</ele><time>2026-03-31T11:45:20Z</time></trkpt><trkpt lat="42.43114906293901" lon="-1.372184587214135"><ele>424.0</ele><time>2026-03-31T11:45:21Z</time></trkpt><trkpt lat="42.43133464522553" lon="-1.3721512566801077"><ele>425.0</ele><time>2026-03-31T11:45:22Z</time></trkpt><trkpt lat="42.431556270088045" lon="-1.3721739166236668"><ele>426.0</ele><time>2026-03-31T11:45:23Z</time></trkpt><trkpt lat="42.431798665339414" lon="-1.3721944644328634"><ele>428.0</ele><time>2026-03-31T11:45:24Z</time></trkpt><trkpt lat="42.432022914478665" lon="-1.37219990799835"><ele>430.0</ele><time>2026-03-31T11:45:25Z</time></trkpt><trkpt lat="42.432220350289825" lon="-1.3721991637890705"><ele>432.0</ele><time>2026-03-31T11:45:26Z</time></trkpt><trkpt lat="42.43240158657017" lon="-1.3722000712266924"><ele>432.0</ele><time>2026-03-31T11:45:27Z</time></trkpt><trkpt lat="42.43257894491067" lon="-1.372218818703132"><ele>432.0</ele><time>2026-03-31T11:45:28Z</time></trkpt><trkpt lat="42.43276872726017" lon="-1.372262439712502"><ele>432.0</ele><time>2026-03-31T11:45:29Z</time></trkpt><trkpt lat="42.43295792712248" lon="-1.3723248957819796"><ele>432.0</ele><time>2026-03-31T11:45:30Z</time></trkpt><trkpt lat="42.433156838888124" lon="-1.3723873342967914"><ele>432.0</ele><time>2026-03-31T11:45:31Z</time></trkpt><trkpt lat="42.43335779782121" lon="-1.3724484792115283"><ele>432.0</ele><time>2026-03-31T11:45:32Z</time></trkpt><trkpt lat="42.43355499353951" lon="-1.3725097736723544"><ele>432.0</ele><time>2026-03-31T11:45:33Z</time></trkpt><trkpt lat="42.43374763746003" lon="-1.3725671814663298"><ele>432.0</ele><time>2026-03-31T11:45:34Z</time></trkpt><trkpt lat="42.4339379473123" lon="-1.3726214353608914"><ele>432.0</ele><time>2026-03-31T11:45:35Z</time></trkpt><trkpt lat="42.434128686274505" lon="-1.3726796671121653"><ele>431.66666666666663</ele><time>2026-03-31T11:45:36Z</time></trkpt><trkpt lat="42.434313742706784" lon="-1.372733527033115"><ele>431.3333333333333</ele><time>2026-03-31T11:45:37Z</time></trkpt><trkpt lat="42.434502660050825" lon="-1.3727701354541033"><ele>431.0</ele><time>2026-03-31T11:45:38Z</time></trkpt><trkpt lat="42.43469415583752" lon="-1.3727889228576673"><ele>432.3333333333333</ele><time>2026-03-31T11:45:39Z</time></trkpt><trkpt lat="42.4348832087943" lon="-1.372801552962619"><ele>433.66666666666663</ele><time>2026-03-31T11:45:40Z</time></trkpt><trkpt lat="42.43507137746267" lon="-1.3728152097509343"><ele>435.0</ele><time>2026-03-31T11:45:41Z</time></trkpt><trkpt lat="42.43526086834033" lon="-1.372858260303152"><ele>435.0</ele><time>2026-03-31T11:45:42Z</time></trkpt><trkpt lat="42.43543806344305" lon="-1.3729582259792914"><ele>435.0</ele><time>2026-03-31T11:45:43Z</time></trkpt><trkpt lat="42.43559211871607" lon="-1.3730870986304748"><ele>435.0</ele><time>2026-03-31T11:45:44Z</time></trkpt><trkpt lat="42.43573022115552" lon="-1.373200283444233"><ele>436.0</ele><time>2026-03-31T11:45:45Z</time></trkpt><trkpt lat="42.43586228705831" lon="-1.3732775157862787"><ele>437.0</ele><time>2026-03-31T11:45:46Z</time></trkpt><trkpt lat="42.43599945431178" lon="-1.373328033453171"><ele>438.0</ele><time>2026-03-31T11:45:47Z</time></trkpt><trkpt lat="42.43614999891422" lon="-1.3733414970397333"><ele>439.0</ele><time>2026-03-31T11:45:48Z</time></trkpt><trkpt lat="42.436306772453214" lon="-1.3733124861460322"><ele>439.33333333333337</ele><time>2026-03-31T11:45:49Z</time></trkpt><trkpt lat="42.436460747812944" lon="-1.3732338923025198"><ele>439.66666666666663</ele><time>2026-03-31T11:45:50Z</time></trkpt><trkpt lat="42.436612986079325" lon="-1.3731272623137267"><ele>440.0</ele><time>2026-03-31T11:45:51Z</time></trkpt><trkpt lat="42.436780277685514" lon="-1.3730214520455817"><ele>439.3333333333333</ele><time>2026-03-31T11:45:52Z</time></trkpt><trkpt lat="42.4369488325526" lon="-1.372917683482315"><ele>438.66666666666663</ele><time>2026-03-31T11:45:53Z</time></trkpt><trkpt lat="42.43711394913955" lon="-1.3728163186412268"><ele>438.0</ele><time>2026-03-31T11:45:54Z</time></trkpt><trkpt lat="42.4372794822001" lon="-1.372712629507663"><ele>439.66666666666663</ele><time>2026-03-31T11:45:55Z</time></trkpt><trkpt lat="42.43744749337335" lon="-1.3726155698310836"><ele>441.3333333333333</ele><time>2026-03-31T11:45:56Z</time></trkpt><trkpt lat="42.4376108752772" lon="-1.3725194905774099"><ele>443.0</ele><time>2026-03-31T11:45:57Z</time></trkpt><trkpt lat="42.43777153546885" lon="-1.3724313031426487"><ele>443.0</ele><time>2026-03-31T11:45:58Z</time></trkpt><trkpt lat="42.43793232418631" lon="-1.3723551726787235"><ele>443.0</ele><time>2026-03-31T11:45:59Z</time></trkpt><trkpt lat="42.438102810848115" lon="-1.3722846885121647"><ele>443.0</ele><time>2026-03-31T11:46:00Z</time></trkpt><trkpt lat="42.43829307277726" lon="-1.3722262581505653"><ele>444.0</ele><time>2026-03-31T11:46:01Z</time></trkpt><trkpt lat="42.43849606674223" lon="-1.3721762695549786"><ele>445.0</ele><time>2026-03-31T11:46:02Z</time></trkpt><trkpt lat="42.438711124939836" lon="-1.372129797195438"><ele>446.0</ele><time>2026-03-31T11:46:03Z</time></trkpt><trkpt lat="42.4389231730093" lon="-1.3720787171775886"><ele>446.66666666666663</ele><time>2026-03-31T11:46:04Z</time></trkpt><trkpt lat="42.439125685792725" lon="-1.3720238312039303"><ele>447.33333333333337</ele><time>2026-03-31T11:46:05Z</time></trkpt><trkpt lat="42.43932559375775" lon="-1.3719723311990106"><ele>448.0</ele><time>2026-03-31T11:46:06Z</time></trkpt><trkpt lat="42.43952119973301" lon="-1.3719251734110474"><ele>449.33333333333337</ele><time>2026-03-31T11:46:07Z</time></trkpt><trkpt lat="42.43970808178386" lon="-1.3718787916738424"><ele>450.66666666666663</ele><time>2026-03-31T11:46:08Z</time></trkpt><trkpt lat="42.43988672836975" lon="-1.3718362027337727"><ele>452.0</ele><time>2026-03-31T11:46:09Z</time></trkpt><trkpt lat="42.4400522929849" lon="-1.3717884856253613"><ele>452.0</ele><time>2026-03-31T11:46:10Z</time></trkpt><trkpt lat="42.44022279780821" lon="-1.3717276658331699"><ele>452.0</ele><time>2026-03-31T11:46:11Z</time></trkpt><trkpt lat="42.44038810799171" lon="-1.3716155176865692"><ele>452.0</ele><time>2026-03-31T11:46:12Z</time></trkpt><trkpt lat="42.44054308274179" lon="-1.3714417086382162"><ele>453.66666666666663</ele><time>2026-03-31T11:46:13Z</time></trkpt><trkpt lat="42.44070133260234" lon="-1.3712506526694135"><ele>455.33333333333337</ele><time>2026-03-31T11:46:14Z</time></trkpt><trkpt lat="42.440873409088" lon="-1.3710662322954328"><ele>457.0</ele><time>2026-03-31T11:46:15Z</time></trkpt><trkpt lat="42.44104161536511" lon="-1.370887229712093"><ele>457.0</ele><time>2026-03-31T11:46:16Z</time></trkpt><trkpt lat="42.441202330577646" lon="-1.3707140112830307"><ele>457.0</ele><time>2026-03-31T11:46:17Z</time></trkpt><trkpt lat="42.44135325385184" lon="-1.370555729221281"><ele>457.0</ele><time>2026-03-31T11:46:18Z</time></trkpt><trkpt lat="42.441493610489616" lon="-1.370411918724397"><ele>458.0</ele><time>2026-03-31T11:46:19Z</time></trkpt><trkpt lat="42.441650186819174" lon="-1.370302139506459"><ele>459.0</ele><time>2026-03-31T11:46:20Z</time></trkpt><trkpt lat="42.44185422286598" lon="-1.3702412006318356"><ele>460.0</ele><time>2026-03-31T11:46:21Z</time></trkpt><trkpt lat="42.442074798223736" lon="-1.3701992164253183"><ele>462.0</ele><time>2026-03-31T11:46:22Z</time></trkpt><trkpt lat="42.44229951682759" lon="-1.3701412825079775"><ele>464.0</ele><time>2026-03-31T11:46:23Z</time></trkpt><trkpt lat="42.44252343017371" lon="-1.3700727445285654"><ele>464.0</ele><time>2026-03-31T11:46:24Z</time></trkpt><trkpt lat="42.44273826556252" lon="-1.3700150286390411"><ele>464.0</ele><time>2026-03-31T11:46:25Z</time></trkpt><trkpt lat="42.442941520149226" lon="-1.3699806992545802"><ele>464.0</ele><time>2026-03-31T11:46:26Z</time></trkpt><trkpt lat="42.44313469809066" lon="-1.3699875646115653"><ele>465.66666666666663</ele><time>2026-03-31T11:46:27Z</time></trkpt><trkpt lat="42.443341138694585" lon="-1.3700441381428508"><ele>467.33333333333337</ele><time>2026-03-31T11:46:28Z</time></trkpt><trkpt lat="42.44355444775673" lon="-1.3701293630577371"><ele>469.0</ele><time>2026-03-31T11:46:29Z</time></trkpt><trkpt lat="42.44376940154103" lon="-1.3702016298326671"><ele>470.6666666666667</ele><time>2026-03-31T11:46:30Z</time></trkpt><trkpt lat="42.443970214294765" lon="-1.370254281500541"><ele>472.33333333333337</ele><time>2026-03-31T11:46:31Z</time></trkpt><trkpt lat="42.44413792546079" lon="-1.3703098922297672"><ele>474.0</ele><time>2026-03-31T11:46:32Z</time></trkpt><trkpt lat="42.444288533628864" lon="-1.3703646024140685"><ele>474.0</ele><time>2026-03-31T11:46:33Z</time></trkpt><trkpt lat="42.44442355883792" lon="-1.3703499155987957"><ele>474.0</ele><time>2026-03-31T11:46:34Z</time></trkpt><trkpt lat="42.44453643442831" lon="-1.3702883141514195"><ele>474.0</ele><time>2026-03-31T11:46:35Z</time></trkpt><trkpt lat="42.444588856589604" lon="-1.3701418598466326"><ele>474.0</ele><time>2026-03-31T11:46:36Z</time></trkpt><trkpt lat="42.444662274618906" lon="-1.3699771569284678"><ele>474.75</ele><time>2026-03-31T11:46:37Z</time></trkpt><trkpt lat="42.44475300972048" lon="-1.369809235291493"><ele>475.5</ele><time>2026-03-31T11:46:38Z</time></trkpt><trkpt lat="42.44483378152498" lon="-1.3696665937940031"><ele>476.25</ele><time>2026-03-31T11:46:39Z</time></trkpt><trkpt lat="42.444930319427186" lon="-1.3695890970107014"><ele>477.0</ele><time>2026-03-31T11:46:40Z</time></trkpt><trkpt lat="42.44505315383329" lon="-1.3695694762928645"><ele>477.0</ele><time>2026-03-31T11:46:41Z</time></trkpt><trkpt lat="42.44520345433332" lon="-1.3695985870091367"><ele>477.0</ele><time>2026-03-31T11:46:42Z</time></trkpt><trkpt lat="42.44537847001681" lon="-1.3696435959023052"><ele>477.0</ele><time>2026-03-31T11:46:43Z</time></trkpt><trkpt lat="42.44556222432954" lon="-1.3696803001416438"><ele>478.33333333333337</ele><time>2026-03-31T11:46:44Z</time></trkpt><trkpt lat="42.445751201127294" lon="-1.3697177866526489"><ele>479.6666666666667</ele><time>2026-03-31T11:46:45Z</time></trkpt><trkpt lat="42.445937813960995" lon="-1.3697807744795487"><ele>481.0</ele><time>2026-03-31T11:46:46Z</time></trkpt><trkpt lat="42.44612598336213" lon="-1.3698743503095765"><ele>482.6666666666667</ele><time>2026-03-31T11:46:47Z</time></trkpt><trkpt lat="42.446318698106246" lon="-1.369977041016907"><ele>484.33333333333337</ele><time>2026-03-31T11:46:48Z</time></trkpt><trkpt lat="42.44651613955778" lon="-1.3700730201492166"><ele>486.0</ele><time>2026-03-31T11:46:49Z</time></trkpt><trkpt lat="42.446713478834894" lon="-1.3701583178037575"><ele>486.0</ele><time>2026-03-31T11:46:50Z</time></trkpt><trkpt lat="42.44691506171626" lon="-1.37021182363973"><ele>486.0</ele><time>2026-03-31T11:46:51Z</time></trkpt><trkpt lat="42.44711539776258" lon="-1.3701912109533372"><ele>486.0</ele><time>2026-03-31T11:46:52Z</time></trkpt><trkpt lat="42.447296170168926" lon="-1.3701704922644686"><ele>486.5</ele><time>2026-03-31T11:46:53Z</time></trkpt><trkpt lat="42.4474587673045" lon="-1.3701594533277934"><ele>487.0</ele><time>2026-03-31T11:46:54Z</time></trkpt><trkpt lat="42.44760765373259" lon="-1.370160231353544"><ele>487.5</ele><time>2026-03-31T11:46:55Z</time></trkpt><trkpt lat="42.44773783404325" lon="-1.3701993564632702"><ele>488.0</ele><time>2026-03-31T11:46:56Z</time></trkpt><trkpt lat="42.44785500998481" lon="-1.3702765873041423"><ele>485.66666666666663</ele><time>2026-03-31T11:46:57Z</time></trkpt><trkpt lat="42.44797406297167" lon="-1.3703859509667728"><ele>483.33333333333337</ele><time>2026-03-31T11:46:58Z</time></trkpt><trkpt lat="42.448090159621835" lon="-1.3705282460840842"><ele>481.0</ele><time>2026-03-31T11:46:59Z</time></trkpt><trkpt lat="42.4482127359842" lon="-1.370686597878565"><ele>481.0</ele><time>2026-03-31T11:47:00Z</time></trkpt><trkpt lat="42.44832771483999" lon="-1.3708663129215506"><ele>481.0</ele><time>2026-03-31T11:47:01Z</time></trkpt><trkpt lat="42.448413750328534" lon="-1.3710682778995231"><ele>481.0</ele><time>2026-03-31T11:47:02Z</time></trkpt><trkpt lat="42.44850995977576" lon="-1.3712764220963276"><ele>479.33333333333337</ele><time>2026-03-31T11:47:03Z</time></trkpt><trkpt lat="42.448670219495334" lon="-1.3713903797339757"><ele>477.66666666666663</ele><time>2026-03-31T11:47:04Z</time></trkpt><trkpt lat="42.44884146042912" lon="-1.3714971361537969"><ele>476.0</ele><time>2026-03-31T11:47:05Z</time></trkpt><trkpt lat="42.44901992739305" lon="-1.3716181005603592"><ele>476.0</ele><time>2026-03-31T11:47:06Z</time></trkpt><trkpt lat="42.449210249878924" lon="-1.371705805265472"><ele>476.0</ele><time>2026-03-31T11:47:07Z</time></trkpt><trkpt lat="42.44938717987174" lon="-1.371810289151007"><ele>476.0</ele><time>2026-03-31T11:47:08Z</time></trkpt><trkpt lat="42.44953527403855" lon="-1.3719462078174605"><ele>472.66666666666663</ele><time>2026-03-31T11:47:09Z</time></trkpt><trkpt lat="42.449654506706814" lon="-1.3721333637316218"><ele>469.33333333333337</ele><time>2026-03-31T11:47:10Z</time></trkpt><trkpt lat="42.449754734624435" lon="-1.3723564587135009"><ele>466.0</ele><time>2026-03-31T11:47:11Z</time></trkpt><trkpt lat="42.449841051999414" lon="-1.3725899020271652"><ele>466.0</ele><time>2026-03-31T11:47:12Z</time></trkpt><trkpt lat="42.4499632596286" lon="-1.3727668359945495"><ele>466.0</ele><time>2026-03-31T11:47:13Z</time></trkpt><trkpt lat="42.45010432784248" lon="-1.3728824983585617"><ele>466.0</ele><time>2026-03-31T11:47:14Z</time></trkpt><trkpt lat="42.45021045232401" lon="-1.37300944026176"><ele>467.25</ele><time>2026-03-31T11:47:15Z</time></trkpt><trkpt lat="42.450316069284185" lon="-1.3731161142440462"><ele>468.5</ele><time>2026-03-31T11:47:16Z</time></trkpt><trkpt lat="42.45036591638392" lon="-1.3732950554221997"><ele>469.75</ele><time>2026-03-31T11:47:17Z</time></trkpt><trkpt lat="42.450379964238614" lon="-1.3735247890975444"><ele>471.0</ele><time>2026-03-31T11:47:18Z</time></trkpt><trkpt lat="42.405919289485894" lon="-1.389277415749261"><ele>434.5</ele><time>2026-03-31T11:43:18Z</time></trkpt><trkpt lat="42.406111794360484" lon="-1.3890875123831585"><ele>398.0</ele><time>2026-03-31T11:43:19Z</time></trkpt><trkpt lat="42.40631317704369" lon="-1.3888926032384388"><ele>397.5</ele><time>2026-03-31T11:43:20Z</time></trkpt><trkpt lat="42.40651405995652" lon="-1.3886939033585435"><ele>397.0</ele><time>2026-03-31T11:43:21Z</time></trkpt><trkpt lat="42.40671542501642" lon="-1.3884965770903555"><ele>397.0</ele><time>2026-03-31T11:43:22Z</time></trkpt><trkpt lat="42.4069260975973" lon="-1.38829434435401"><ele>397.0</ele><time>2026-03-31T11:43:23Z</time></trkpt><trkpt lat="42.407137148374076" lon="-1.3880882015273726"><ele>398.5</ele><time>2026-03-31T11:43:24Z</time></trkpt><trkpt lat="42.40734838652767" lon="-1.3878764454627355"><ele>400.0</ele><time>2026-03-31T11:43:25Z</time></trkpt><trkpt lat="42.40756676281213" lon="-1.3876661899579537"><ele>400.0</ele><time>2026-03-31T11:43:26Z</time></trkpt><trkpt lat="42.40777285979549" lon="-1.3874638841609324"><ele>400.0</ele><time>2026-03-31T11:43:27Z</time></trkpt><trkpt lat="42.40798566924214" lon="-1.3872609829062215"><ele>400.5</ele><time>2026-03-31T11:43:28Z</time></trkpt><trkpt lat="42.40818982590646" lon="-1.3870559100959243"><ele>401.0</ele><time>2026-03-31T11:43:29Z</time></trkpt><trkpt lat="42.40840169211741" lon="-1.3868454542445077"><ele>401.0</ele><time>2026-03-31T11:43:30Z</time></trkpt><trkpt lat="42.408617476883286" lon="-1.3866360378676061"><ele>401.0</ele><time>2026-03-31T11:43:31Z</time></trkpt><trkpt lat="42.408844341789624" lon="-1.3864163939868983"><ele>400.0</ele><time>2026-03-31T11:43:32Z</time></trkpt><trkpt lat="42.40905600641094" lon="-1.3862035298404185"><ele>399.0</ele><time>2026-03-31T11:43:33Z</time></trkpt><trkpt lat="42.40927021936685" lon="-1.3859935221013504"><ele>399.0</ele><time>2026-03-31T11:43:34Z</time></trkpt><trkpt lat="42.40948572890647" lon="-1.3857802465888325"><ele>399.0</ele><time>2026-03-31T11:43:35Z</time></trkpt><trkpt lat="42.40970358920788" lon="-1.3855690341422697"><ele>399.5</ele><time>2026-03-31T11:43:36Z</time></trkpt><trkpt lat="42.40991410729971" lon="-1.385359694453959"><ele>400.0</ele><time>2026-03-31T11:43:37Z</time></trkpt><trkpt lat="42.41012224314903" lon="-1.3851547896030885"><ele>400.0</ele><time>2026-03-31T11:43:38Z</time></trkpt><trkpt lat="42.41032774704239" lon="-1.3849526007358366"><ele>400.0</ele><time>2026-03-31T11:43:39Z</time></trkpt><trkpt lat="42.41053030167717" lon="-1.3847551057479874"><ele>400.0</ele><time>2026-03-31T11:43:40Z</time></trkpt><trkpt lat="42.41072885267249" lon="-1.384568110419218"><ele>400.0</ele><time>2026-03-31T11:43:41Z</time></trkpt><trkpt lat="42.410921208709404" lon="-1.384376394629667"><ele>400.0</ele><time>2026-03-31T11:43:42Z</time></trkpt><trkpt lat="42.41110962753772" lon="-1.384161592824674"><ele>400.0</ele><time>2026-03-31T11:43:43Z</time></trkpt><trkpt lat="42.41130098748345" lon="-1.3839237608868764"><ele>401.5</ele><time>2026-03-31T11:43:44Z</time></trkpt><trkpt lat="42.411490821949684" lon="-1.3836782191027714"><ele>403.0</ele><time>2026-03-31T11:43:45Z</time></trkpt><trkpt lat="42.41167409381826" lon="-1.3834431951424613"><ele>403.0</ele><time>2026-03-31T11:43:46Z</time></trkpt><trkpt lat="42.41185282640478" lon="-1.3832083443018506"><ele>403.0</ele><time>2026-03-31T11:43:47Z</time></trkpt><trkpt lat="42.412028083180786" lon="-1.3829729018022194"><ele>402.5</ele><time>2026-03-31T11:43:48Z</time></trkpt><trkpt lat="42.41219725500791" lon="-1.3827400287576097"><ele>402.0</ele><time>2026-03-31T11:43:49Z</time></trkpt><trkpt lat="42.4123747263657" lon="-1.3825042860445296"><ele>402.0</ele><time>2026-03-31T11:43:50Z</time></trkpt><trkpt lat="42.412545966446956" lon="-1.3822789177725068"><ele>402.0</ele><time>2026-03-31T11:43:51Z</time></trkpt><trkpt lat="42.41271543900862" lon="-1.382063912402622"><ele>400.5</ele><time>2026-03-31T11:43:52Z</time></trkpt><trkpt lat="42.41290534165756" lon="-1.381860591868279"><ele>399.0</ele><time>2026-03-31T11:43:53Z</time></trkpt><trkpt lat="42.413122733891846" lon="-1.3816554054193784"><ele>399.0</ele><time>2026-03-31T11:43:54Z</time></trkpt><trkpt lat="42.41336325547641" lon="-1.381441253221588"><ele>399.0</ele><time>2026-03-31T11:43:55Z</time></trkpt><trkpt lat="42.41359201799297" lon="-1.381236312402159"><ele>400.5</ele><time>2026-03-31T11:43:56Z</time></trkpt><trkpt lat="42.413823259034615" lon="-1.3810314939495356"><ele>402.0</ele><time>2026-03-31T11:43:57Z</time></trkpt><trkpt lat="42.41404944300327" lon="-1.380836856074024"><ele>402.0</ele><time>2026-03-31T11:43:58Z</time></trkpt><trkpt lat="42.414282006176144" lon="-1.3806669759290826"><ele>402.0</ele><time>2026-03-31T11:43:59Z</time></trkpt><trkpt lat="42.414515124406414" lon="-1.3805100979967089"><ele>402.5</ele><time>2026-03-31T11:44:00Z</time></trkpt><trkpt lat="42.414743946661254" lon="-1.3803557577473855"><ele>403.0</ele><time>2026-03-31T11:44:01Z</time></trkpt><trkpt lat="42.41495985625533" lon="-1.3802082760271874"><ele>403.0</ele><time>2026-03-31T11:44:02Z</time></trkpt><trkpt lat="42.41516785410246" lon="-1.3800573609344005"><ele>403.0</ele><time>2026-03-31T11:44:03Z</time></trkpt><trkpt lat="42.41537494965233" lon="-1.3799115090181837"><ele>403.5</ele><time>2026-03-31T11:44:04Z</time></trkpt><trkpt lat="42.41558595836167" lon="-1.3797611948226725"><ele>404.0</ele><time>2026-03-31T11:44:05Z</time></trkpt><trkpt lat="42.415799712512396" lon="-1.3796187351292064"><ele>405.0</ele><time>2026-03-31T11:44:06Z</time></trkpt><trkpt lat="42.41601945576427" lon="-1.3794755120101745"><ele>406.0</ele><time>2026-03-31T11:44:07Z</time></trkpt><trkpt lat="42.416234202156694" lon="-1.379331949982942"><ele>404.5</ele><time>2026-03-31T11:44:08Z</time></trkpt><trkpt lat="42.41644815489428" lon="-1.379167547872853"><ele>403.0</ele><time>2026-03-31T11:44:09Z</time></trkpt><trkpt lat="42.41665771654697" lon="-1.379017805502942"><ele>403.0</ele><time>2026-03-31T11:44:10Z</time></trkpt><trkpt lat="42.41686696124825" lon="-1.3788769328700923"><ele>403.0</ele><time>2026-03-31T11:44:11Z</time></trkpt><trkpt lat="42.41707281014217" lon="-1.37873276711405"><ele>404.5</ele><time>2026-03-31T11:44:12Z</time></trkpt><trkpt lat="42.41727359670024" lon="-1.3785974416362003"><ele>406.0</ele><time>2026-03-31T11:44:13Z</time></trkpt><trkpt lat="42.417484793369965" lon="-1.3784798722067086"><ele>406.0</ele><time>2026-03-31T11:44:14Z</time></trkpt><trkpt lat="42.41770331451135" lon="-1.3784205538901386"><ele>406.0</ele><time>2026-03-31T11:44:15Z</time></trkpt><trkpt lat="42.41793918256643" lon="-1.3783901457706185"><ele>407.0</ele><time>2026-03-31T11:44:16Z</time></trkpt><trkpt lat="42.418177074868105" lon="-1.3783660849533879"><ele>408.0</ele><time>2026-03-31T11:44:17Z</time></trkpt><trkpt lat="42.418406152704186" lon="-1.3783272093925456"><ele>408.0</ele><time>2026-03-31T11:44:18Z</time></trkpt><trkpt lat="42.41863867941548" lon="-1.3782814769220053"><ele>408.0</ele><time>2026-03-31T11:44:19Z</time></trkpt><trkpt lat="42.418873540747526" lon="-1.3782355663459869"><ele>407.0</ele><time>2026-03-31T11:44:20Z</time></trkpt><trkpt lat="42.419107979191686" lon="-1.3781906854733674"><ele>406.0</ele><time>2026-03-31T11:44:21Z</time></trkpt><trkpt lat="42.41933500866521" lon="-1.3781493096474486"><ele>406.0</ele><time>2026-03-31T11:44:22Z</time></trkpt><trkpt lat="42.419568540537654" lon="-1.3781019025476"><ele>406.0</ele><time>2026-03-31T11:44:23Z</time></trkpt><trkpt lat="42.41979344475749" lon="-1.3780537621504383"><ele>407.6666666666667</ele><time>2026-03-31T11:44:24Z</time></trkpt><trkpt lat="42.420010004381595" lon="-1.3780083819500168"><ele>409.33333333333337</ele><time>2026-03-31T11:44:25Z</time></trkpt><trkpt lat="42.42022760855228" lon="-1.3779583560336512"><ele>411.0</ele><time>2026-03-31T11:44:26Z</time></trkpt><trkpt lat="42.42044861785431" lon="-1.3778851681152373"><ele>410.33333333333337</ele><time>2026-03-31T11:44:27Z</time></trkpt><trkpt lat="42.42066089376086" lon="-1.377783525199626"><ele>409.6666666666667</ele><time>2026-03-31T11:44:28Z</time></trkpt><trkpt lat="42.4208712180533" lon="-1.3776780427404256"><ele>409.0</ele><time>2026-03-31T11:44:29Z</time></trkpt><trkpt lat="42.421085455210616" lon="-1.3775832209232348"><ele>409.0</ele><time>2026-03-31T11:44:30Z</time></trkpt><trkpt lat="42.42130067064065" lon="-1.3774887790533579"><ele>409.0</ele><time>2026-03-31T11:44:31Z</time></trkpt><trkpt lat="42.421513648830796" lon="-1.3773919767527223"><ele>409.0</ele><time>2026-03-31T11:44:32Z</time></trkpt><trkpt lat="42.42173126221562" lon="-1.3772967420271665"><ele>409.0</ele><time>2026-03-31T11:44:33Z</time></trkpt><trkpt lat="42.42194614939358" lon="-1.3772006775880292"><ele>410.0</ele><time>2026-03-31T11:44:34Z</time></trkpt><trkpt lat="42.42216227336124" lon="-1.3771010505538348"><ele>411.0</ele><time>2026-03-31T11:44:35Z</time></trkpt><trkpt lat="42.422377430373" lon="-1.3770084174054085"><ele>411.0</ele><time>2026-03-31T11:44:36Z</time></trkpt><trkpt lat="42.42259262278461" lon="-1.3769132742141121"><ele>411.0</ele><time>2026-03-31T11:44:37Z</time></trkpt><trkpt lat="42.4227944401382" lon="-1.376821521220574"><ele>411.0</ele><time>2026-03-31T11:44:38Z</time></trkpt><trkpt lat="42.42300364486556" lon="-1.3767308330997128"><ele>410.66666666666663</ele><time>2026-03-31T11:44:39Z</time></trkpt><trkpt lat="42.423200965291706" lon="-1.3766290566670023"><ele>410.3333333333333</ele><time>2026-03-31T11:44:40Z</time></trkpt><trkpt lat="42.42340447184955" lon="-1.376519584711065"><ele>410.0</ele><time>2026-03-31T11:44:41Z</time></trkpt><trkpt lat="42.42359554619036" lon="-1.376336130741586"><ele>410.0</ele><time>2026-03-31T11:44:42Z</time></trkpt><trkpt lat="42.42379852960567" lon="-1.3761507442225336"><ele>410.0</ele><time>2026-03-31T11:44:43Z</time></trkpt><trkpt lat="42.42401680123658" lon="-1.3759617886582034"><ele>409.0</ele><time>2026-03-31T11:44:44Z</time></trkpt><trkpt lat="42.424243602579246" lon="-1.3757438799886461"><ele>408.0</ele><time>2026-03-31T11:44:45Z</time></trkpt><trkpt lat="42.42446609880578" lon="-1.375539540122123"><ele>410.0</ele><time>2026-03-31T11:44:46Z</time></trkpt><trkpt lat="42.424682540152766" lon="-1.3753356247639124"><ele>412.0</ele><time>2026-03-31T11:44:47Z</time></trkpt><trkpt lat="42.42491302075093" lon="-1.375119991443596"><ele>412.0</ele><time>2026-03-31T11:44:48Z</time></trkpt><trkpt lat="42.42515089416243" lon="-1.3749029666634633"><ele>412.0</ele><time>2026-03-31T11:44:49Z</time></trkpt><trkpt lat="42.425393533668746" lon="-1.374684114521353"><ele>411.0</ele><time>2026-03-31T11:44:50Z</time></trkpt><trkpt lat="42.42561009630187" lon="-1.374485575487672"><ele>410.0</ele><time>2026-03-31T11:44:51Z</time></trkpt><trkpt lat="42.425815785205074" lon="-1.374291503482187"><ele>410.0</ele><time>2026-03-31T11:44:52Z</time></trkpt><trkpt lat="42.426012019416156" lon="-1.374092740025147"><ele>410.0</ele><time>2026-03-31T11:44:53Z</time></trkpt><trkpt lat="42.426207645193905" lon="-1.3738830411942025"><ele>412.0</ele><time>2026-03-31T11:44:54Z</time></trkpt><trkpt lat="42.42640111017645" lon="-1.373666209976086"><ele>414.0</ele><time>2026-03-31T11:44:55Z</time></trkpt><trkpt lat="42.42658044374788" lon="-1.3734617655428727"><ele>414.0</ele><time>2026-03-31T11:44:56Z</time></trkpt><trkpt lat="42.42674527874524" lon="-1.3732741302769291"><ele>414.0</ele><time>2026-03-31T11:44:57Z</time></trkpt><trkpt lat="42.426899072821186" lon="-1.3731026146871017"><ele>414.0</ele><time>2026-03-31T11:44:58Z</time></trkpt><trkpt lat="42.42706892624451" lon="-1.372921276637203"><ele>414.5</ele><time>2026-03-31T11:44:59Z</time></trkpt><trkpt lat="42.42726806616714" lon="-1.3727635122628643"><ele>415.0</ele><time>2026-03-31T11:45:00Z</time></trkpt><trkpt lat="42.42749057164238" lon="-1.372625229248114"><ele>415.0</ele><time>2026-03-31T11:45:01Z</time></trkpt><trkpt lat="42.427679017088266" lon="-1.3725120872847727"><ele>415.0</ele><time>2026-03-31T11:45:02Z</time></trkpt><trkpt lat="42.42784921637489" lon="-1.37240145749057"><ele>415.0</ele><time>2026-03-31T11:45:03Z</time></trkpt><trkpt lat="42.4280011347497" lon="-1.3722936382152298"><ele>415.6666666666667</ele><time>2026-03-31T11:45:04Z</time></trkpt><trkpt lat="42.42816549219351" lon="-1.372212401049575"><ele>416.33333333333337</ele><time>2026-03-31T11:45:05Z</time></trkpt><trkpt lat="42.428361842591826" lon="-1.3721814259266274"><ele>417.0</ele><time>2026-03-31T11:45:06Z</time></trkpt><trkpt lat="42.42857986426054" lon="-1.3721972618576432"><ele>418.5</ele><time>2026-03-31T11:45:07Z</time></trkpt><trkpt lat="42.42880132823873" lon="-1.3722601378273709"><ele>420.0</ele><time>2026-03-31T11:45:08Z</time></trkpt><trkpt lat="42.429018523230944" lon="-1.3723566408299501"><ele>420.33333333333337</ele><time>2026-03-31T11:45:09Z</time></trkpt><trkpt lat="42.4292216051016" lon="-1.3724806172354225"><ele>420.6666666666667</ele><time>2026-03-31T11:45:10Z</time></trkpt><trkpt lat="42.42941986737618" lon="-1.3726084512013998"><ele>421.0</ele><time>2026-03-31T11:45:11Z</time></trkpt><trkpt lat="42.42960577163882" lon="-1.3727023098177193"><ele>421.33333333333337</ele><time>2026-03-31T11:45:12Z</time></trkpt><trkpt lat="42.42977131121404" lon="-1.3727891412826851"><ele>421.66666666666663</ele><time>2026-03-31T11:45:13Z</time></trkpt><trkpt lat="42.429919906362386" lon="-1.372858766383043"><ele>422.0</ele><time>2026-03-31T11:45:14Z</time></trkpt><trkpt lat="42.43008252892924" lon="-1.3728446946128636"><ele>422.0</ele><time>2026-03-31T11:45:15Z</time></trkpt><trkpt lat="42.4302478184952" lon="-1.3727869121787881"><ele>422.0</ele><time>2026-03-31T11:45:16Z</time></trkpt><trkpt lat="42.4304214415166" lon="-1.3726617422674077"><ele>422.0</ele><time>2026-03-31T11:45:17Z</time></trkpt><trkpt lat="42.43060839025464" lon="-1.3725401416828964"><ele>422.3333333333333</ele><time>2026-03-31T11:45:18Z</time></trkpt><trkpt lat="42.430796853994536" lon="-1.372384753552244"><ele>422.66666666666663</ele><time>2026-03-31T11:45:19Z</time></trkpt><trkpt lat="42.43098740994054" lon="-1.3722657857691616"><ele>423.0</ele><time>2026-03-31T11:45:20Z</time></trkpt><trkpt lat="42.43114906293901" lon="-1.372184587214135"><ele>424.0</ele><time>2026-03-31T11:45:21Z</time></trkpt><trkpt lat="42.43133464522553" lon="-1.3721512566801077"><ele>425.0</ele><time>2026-03-31T11:45:22Z</time></trkpt><trkpt lat="42.431556270088045" lon="-1.3721739166236668"><ele>426.0</ele><time>2026-03-31T11:45:23Z</time></trkpt><trkpt lat="42.431798665339414" lon="-1.3721944644328634"><ele>428.0</ele><time>2026-03-31T11:45:24Z</time></trkpt><trkpt lat="42.432022914478665" lon="-1.37219990799835"><ele>430.0</ele><time>2026-03-31T11:45:25Z</time></trkpt><trkpt lat="42.432220350289825" lon="-1.3721991637890705"><ele>432.0</ele><time>2026-03-31T11:45:26Z</time></trkpt><trkpt lat="42.43240158657017" lon="-1.3722000712266924"><ele>432.0</ele><time>2026-03-31T11:45:27Z</time></trkpt><trkpt lat="42.43257894491067" lon="-1.372218818703132"><ele>432.0</ele><time>2026-03-31T11:45:28Z</time></trkpt><trkpt lat="42.43276872726017" lon="-1.372262439712502"><ele>432.0</ele><time>2026-03-31T11:45:29Z</time></trkpt><trkpt lat="42.43295792712248" lon="-1.3723248957819796"><ele>432.0</ele><time>2026-03-31T11:45:30Z</time></trkpt><trkpt lat="42.433156838888124" lon="-1.3723873342967914"><ele>432.0</ele><time>2026-03-31T11:45:31Z</time></trkpt><trkpt lat="42.43335779782121" lon="-1.3724484792115283"><ele>432.0</ele><time>2026-03-31T11:45:32Z</time></trkpt><trkpt lat="42.43355499353951" lon="-1.3725097736723544"><ele>432.0</ele><time>2026-03-31T11:45:33Z</time></trkpt><trkpt lat="42.43374763746003" lon="-1.3725671814663298"><ele>432.0</ele><time>2026-03-31T11:45:34Z</time></trkpt><trkpt lat="42.4339379473123" lon="-1.3726214353608914"><ele>432.0</ele><time>2026-03-31T11:45:35Z</time></trkpt><trkpt lat="42.434128686274505" lon="-1.3726796671121653"><ele>431.66666666666663</ele><time>2026-03-31T11:45:36Z</time></trkpt><trkpt lat="42.434313742706784" lon="-1.372733527033115"><ele>431.3333333333333</ele><time>2026-03-31T11:45:37Z</time></trkpt><trkpt lat="42.434502660050825" lon="-1.3727701354541033"><ele>431.0</ele><time>2026-03-31T11:45:38Z</time></trkpt><trkpt lat="42.43469415583752" lon="-1.3727889228576673"><ele>432.3333333333333</ele><time>2026-03-31T11:45:39Z</time></trkpt><trkpt lat="42.4348832087943" lon="-1.372801552962619"><ele>433.66666666666663</ele><time>2026-03-31T11:45:40Z</time></trkpt><trkpt lat="42.43507137746267" lon="-1.3728152097509343"><ele>435.0</ele><time>2026-03-31T11:45:41Z</time></trkpt><trkpt lat="42.43526086834033" lon="-1.372858260303152"><ele>435.0</ele><time>2026-03-31T11:45:42Z</time></trkpt><trkpt lat="42.43543806344305" lon="-1.3729582259792914"><ele>435.0</ele><time>2026-03-31T11:45:43Z</time></trkpt><trkpt lat="42.43559211871607" lon="-1.3730870986304748"><ele>435.0</ele><time>2026-03-31T11:45:44Z</time></trkpt><trkpt lat="42.43573022115552" lon="-1.373200283444233"><ele>436.0</ele><time>2026-03-31T11:45:45Z</time></trkpt><trkpt lat="42.43586228705831" lon="-1.3732775157862787"><ele>437.0</ele><time>2026-03-31T11:45:46Z</time></trkpt><trkpt lat="42.43599945431178" lon="-1.373328033453171"><ele>438.0</ele><time>2026-03-31T11:45:47Z</time></trkpt><trkpt lat="42.43614999891422" lon="-1.3733414970397333"><ele>439.0</ele><time>2026-03-31T11:45:48Z</time></trkpt><trkpt lat="42.436306772453214" lon="-1.3733124861460322"><ele>439.33333333333337</ele><time>2026-03-31T11:45:49Z</time></trkpt><trkpt lat="42.436460747812944" lon="-1.3732338923025198"><ele>439.66666666666663</ele><time>2026-03-31T11:45:50Z</time></trkpt><trkpt lat="42.436612986079325" lon="-1.3731272623137267"><ele>440.0</ele><time>2026-03-31T11:45:51Z</time></trkpt><trkpt lat="42.436780277685514" lon="-1.3730214520455817"><ele>439.3333333333333</ele><time>2026-03-31T11:45:52Z</time></trkpt><trkpt lat="42.4369488325526" lon="-1.372917683482315"><ele>438.66666666666663</ele><time>2026-03-31T11:45:53Z</time></trkpt><trkpt lat="42.43711394913955" lon="-1.3728163186412268"><ele>438.0</ele><time>2026-03-31T11:45:54Z</time></trkpt><trkpt lat="42.4372794822001" lon="-1.372712629507663"><ele>439.66666666666663</ele><time>2026-03-31T11:45:55Z</time></trkpt><trkpt lat="42.43744749337335" lon="-1.3726155698310836"><ele>441.3333333333333</ele><time>2026-03-31T11:45:56Z</time></trkpt><trkpt lat="42.4376108752772" lon="-1.3725194905774099"><ele>443.0</ele><time>2026-03-31T11:45:57Z</time></trkpt><trkpt lat="42.43777153546885" lon="-1.3724313031426487"><ele>443.0</ele><time>2026-03-31T11:45:58Z</time></trkpt><trkpt lat="42.43793232418631" lon="-1.3723551726787235"><ele>443.0</ele><time>2026-03-31T11:45:59Z</time></trkpt><trkpt lat="42.438102810848115" lon="-1.3722846885121647"><ele>443.0</ele><time>2026-03-31T11:46:00Z</time></trkpt><trkpt lat="42.43829307277726" lon="-1.3722262581505653"><ele>444.0</ele><time>2026-03-31T11:46:01Z</time></trkpt><trkpt lat="42.43849606674223" lon="-1.3721762695549786"><ele>445.0</ele><time>2026-03-31T11:46:02Z</time></trkpt><trkpt lat="42.438711124939836" lon="-1.372129797195438"><ele>446.0</ele><time>2026-03-31T11:46:03Z</time></trkpt><trkpt lat="42.4389231730093" lon="-1.3720787171775886"><ele>446.66666666666663</ele><time>2026-03-31T11:46:04Z</time></trkpt><trkpt lat="42.439125685792725" lon="-1.3720238312039303"><ele>447.33333333333337</ele><time>2026-03-31T11:46:05Z</time></trkpt><trkpt lat="42.43932559375775" lon="-1.3719723311990106"><ele>448.0</ele><time>2026-03-31T11:46:06Z</time></trkpt><trkpt lat="42.43952119973301" lon="-1.3719251734110474"><ele>449.33333333333337</ele><time>2026-03-31T11:46:07Z</time></trkpt><trkpt lat="42.43970808178386" lon="-1.3718787916738424"><ele>450.66666666666663</ele><time>2026-03-31T11:46:08Z</time></trkpt><trkpt lat="42.43988672836975" lon="-1.3718362027337727"><ele>452.0</ele><time>2026-03-31T11:46:09Z</time></trkpt><trkpt lat="42.4400522929849" lon="-1.3717884856253613"><ele>452.0</ele><time>2026-03-31T11:46:10Z</time></trkpt><trkpt lat="42.44022279780821" lon="-1.3717276658331699"><ele>452.0</ele><time>2026-03-31T11:46:11Z</time></trkpt><trkpt lat="42.44038810799171" lon="-1.3716155176865692"><ele>452.0</ele><time>2026-03-31T11:46:12Z</time></trkpt><trkpt lat="42.44054308274179" lon="-1.3714417086382162"><ele>453.66666666666663</ele><time>2026-03-31T11:46:13Z</time></trkpt><trkpt lat="42.44070133260234" lon="-1.3712506526694135"><ele>455.33333333333337</ele><time>2026-03-31T11:46:14Z</time></trkpt><trkpt lat="42.440873409088" lon="-1.3710662322954328"><ele>457.0</ele><time>2026-03-31T11:46:15Z</time></trkpt><trkpt lat="42.44104161536511" lon="-1.370887229712093"><ele>457.0</ele><time>2026-03-31T11:46:16Z</time></trkpt><trkpt lat="42.441202330577646" lon="-1.3707140112830307"><ele>457.0</ele><time>2026-03-31T11:46:17Z</time></trkpt><trkpt lat="42.44135325385184" lon="-1.370555729221281"><ele>457.0</ele><time>2026-03-31T11:46:18Z</time></trkpt><trkpt lat="42.441493610489616" lon="-1.370411918724397"><ele>458.0</ele><time>2026-03-31T11:46:19Z</time></trkpt><trkpt lat="42.441650186819174" lon="-1.370302139506459"><ele>459.0</ele><time>2026-03-31T11:46:20Z</time></trkpt><trkpt lat="42.44185422286598" lon="-1.3702412006318356"><ele>460.0</ele><time>2026-03-31T11:46:21Z</time></trkpt><trkpt lat="42.442074798223736" lon="-1.3701992164253183"><ele>462.0</ele><time>2026-03-31T11:46:22Z</time></trkpt><trkpt lat="42.44229951682759" lon="-1.3701412825079775"><ele>464.0</ele><time>2026-03-31T11:46:23Z</time></trkpt><trkpt lat="42.44252343017371" lon="-1.3700727445285654"><ele>464.0</ele><time>2026-03-31T11:46:24Z</time></trkpt><trkpt lat="42.44273826556252" lon="-1.3700150286390411"><ele>464.0</ele><time>2026-03-31T11:46:25Z</time></trkpt><trkpt lat="42.442941520149226" lon="-1.3699806992545802"><ele>464.0</ele><time>2026-03-31T11:46:26Z</time></trkpt><trkpt lat="42.44313469809066" lon="-1.3699875646115653"><ele>465.66666666666663</ele><time>2026-03-31T11:46:27Z</time></trkpt><trkpt lat="42.443341138694585" lon="-1.3700441381428508"><ele>467.33333333333337</ele><time>2026-03-31T11:46:28Z</time></trkpt><trkpt lat="42.44355444775673" lon="-1.3701293630577371"><ele>469.0</ele><time>2026-03-31T11:46:29Z</time></trkpt><trkpt lat="42.44376940154103" lon="-1.3702016298326671"><ele>470.6666666666667</ele><time>2026-03-31T11:46:30Z</time></trkpt><trkpt lat="42.443970214294765" lon="-1.370254281500541"><ele>472.33333333333337</ele><time>2026-03-31T11:46:31Z</time></trkpt><trkpt lat="42.44413792546079" lon="-1.3703098922297672"><ele>474.0</ele><time>2026-03-31T11:46:32Z</time></trkpt><trkpt lat="42.444288533628864" lon="-1.3703646024140685"><ele>474.0</ele><time>2026-03-31T11:46:33Z</time></trkpt><trkpt lat="42.44442355883792" lon="-1.3703499155987957"><ele>474.0</ele><time>2026-03-31T11:46:34Z</time></trkpt><trkpt lat="42.44453643442831" lon="-1.3702883141514195"><ele>474.0</ele><time>2026-03-31T11:46:35Z</time></trkpt><trkpt lat="42.444588856589604" lon="-1.3701418598466326"><ele>474.0</ele><time>2026-03-31T11:46:36Z</time></trkpt><trkpt lat="42.444662274618906" lon="-1.3699771569284678"><ele>474.75</ele><time>2026-03-31T11:46:37Z</time></trkpt><trkpt lat="42.44475300972048" lon="-1.369809235291493"><ele>475.5</ele><time>2026-03-31T11:46:38Z</time></trkpt><trkpt lat="42.44483378152498" lon="-1.3696665937940031"><ele>476.25</ele><time>2026-03-31T11:46:39Z</time></trkpt><trkpt lat="42.444930319427186" lon="-1.3695890970107014"><ele>477.0</ele><time>2026-03-31T11:46:40Z</time></trkpt><trkpt lat="42.44505315383329" lon="-1.3695694762928645"><ele>477.0</ele><time>2026-03-31T11:46:41Z</time></trkpt><trkpt lat="42.44520345433332" lon="-1.3695985870091367"><ele>477.0</ele><time>2026-03-31T11:46:42Z</time></trkpt><trkpt lat="42.44537847001681" lon="-1.3696435959023052"><ele>477.0</ele><time>2026-03-31T11:46:43Z</time></trkpt><trkpt lat="42.44556222432954" lon="-1.3696803001416438"><ele>478.33333333333337</ele><time>2026-03-31T11:46:44Z</time></trkpt><trkpt lat="42.445751201127294" lon="-1.3697177866526489"><ele>479.6666666666667</ele><time>2026-03-31T11:46:45Z</time></trkpt><trkpt lat="42.445937813960995" lon="-1.3697807744795487"><ele>481.0</ele><time>2026-03-31T11:46:46Z</time></trkpt><trkpt lat="42.44612598336213" lon="-1.3698743503095765"><ele>482.6666666666667</ele><time>2026-03-31T11:46:47Z</time></trkpt><trkpt lat="42.446318698106246" lon="-1.369977041016907"><ele>484.33333333333337</ele><time>2026-03-31T11:46:48Z</time></trkpt><trkpt lat="42.44651613955778" lon="-1.3700730201492166"><ele>486.0</ele><time>2026-03-31T11:46:49Z</time></trkpt><trkpt lat="42.446713478834894" lon="-1.3701583178037575"><ele>486.0</ele><time>2026-03-31T11:46:50Z</time></trkpt><trkpt lat="42.44691506171626" lon="-1.37021182363973"><ele>486.0</ele><time>2026-03-31T11:46:51Z</time></trkpt><trkpt lat="42.44711539776258" lon="-1.3701912109533372"><ele>486.0</ele><time>2026-03-31T11:46:52Z</time></trkpt><trkpt lat="42.447296170168926" lon="-1.3701704922644686"><ele>486.5</ele><time>2026-03-31T11:46:53Z</time></trkpt><trkpt lat="42.4474587673045" lon="-1.3701594533277934"><ele>487.0</ele><time>2026-03-31T11:46:54Z</time></trkpt><trkpt lat="42.44760765373259" lon="-1.370160231353544"><ele>487.5</ele><time>2026-03-31T11:46:55Z</time></trkpt><trkpt lat="42.44773783404325" lon="-1.3701993564632702"><ele>488.0</ele><time>2026-03-31T11:46:56Z</time></trkpt><trkpt lat="42.44785500998481" lon="-1.3702765873041423"><ele>485.66666666666663</ele><time>2026-03-31T11:46:57Z</time></trkpt><trkpt lat="42.44797406297167" lon="-1.3703859509667728"><ele>483.33333333333337</ele><time>2026-03-31T11:46:58Z</time></trkpt><trkpt lat="42.448090159621835" lon="-1.3705282460840842"><ele>481.0</ele><time>2026-03-31T11:46:59Z</time></trkpt><trkpt lat="42.4482127359842" lon="-1.370686597878565"><ele>481.0</ele><time>2026-03-31T11:47:00Z</time></trkpt><trkpt lat="42.44832771483999" lon="-1.3708663129215506"><ele>481.0</ele><time>2026-03-31T11:47:01Z</time></trkpt><trkpt lat="42.448413750328534" lon="-1.3710682778995231"><ele>481.0</ele><time>2026-03-31T11:47:02Z</time></trkpt><trkpt lat="42.44850995977576" lon="-1.3712764220963276"><ele>479.33333333333337</ele><time>2026-03-31T11:47:03Z</time></trkpt><trkpt lat="42.448670219495334" lon="-1.3713903797339757"><ele>477.66666666666663</ele><time>2026-03-31T11:47:04Z</time></trkpt><trkpt lat="42.44884146042912" lon="-1.3714971361537969"><ele>476.0</ele><time>2026-03-31T11:47:05Z</time></trkpt><trkpt lat="42.44901992739305" lon="-1.3716181005603592"><ele>476.0</ele><time>2026-03-31T11:47:06Z</time></trkpt><trkpt lat="42.449210249878924" lon="-1.371705805265472"><ele>476.0</ele><time>2026-03-31T11:47:07Z</time></trkpt><trkpt lat="42.44938717987174" lon="-1.371810289151007"><ele>476.0</ele><time>2026-03-31T11:47:08Z</time></trkpt><trkpt lat="42.44953527403855" lon="-1.3719462078174605"><ele>472.66666666666663</ele><time>2026-03-31T11:47:09Z</time></trkpt><trkpt lat="42.449654506706814" lon="-1.3721333637316218"><ele>469.33333333333337</ele><time>2026-03-31T11:47:10Z</time></trkpt><trkpt lat="42.449754734624435" lon="-1.3723564587135009"><ele>466.0</ele><time>2026-03-31T11:47:11Z</time></trkpt><trkpt lat="42.449841051999414" lon="-1.3725899020271652"><ele>466.0</ele><time>2026-03-31T11:47:12Z</time></trkpt><trkpt lat="42.4499632596286" lon="-1.3727668359945495"><ele>466.0</ele><time>2026-03-31T11:47:13Z</time></trkpt><trkpt lat="42.45010432784248" lon="-1.3728824983585617"><ele>466.0</ele><time>2026-03-31T11:47:14Z</time></trkpt><trkpt lat="42.45021045232401" lon="-1.37300944026176"><ele>467.25</ele><time>2026-03-31T11:47:15Z</time></trkpt><trkpt lat="42.450316069284185" lon="-1.3731161142440462"><ele>468.5</ele><time>2026-03-31T11:47:16Z</time></trkpt><trkpt lat="42.45036591638392" lon="-1.3732950554221997"><ele>469.75</ele><time>2026-03-31T11:47:17Z</time></trkpt><trkpt lat="42.450379964238614" lon="-1.3735247890975444"><ele>471.0</ele><time>2026-03-31T11:47:18Z</time></trkpt><trkpt lat="42.45037016690921" lon="-1.3737805629111788"><ele>468.66666666666663</ele><time>2026-03-31T11:47:19Z</time></trkpt><trkpt lat="42.450351301659346" lon="-1.374007769470272"><ele>466.3333333333333</ele><time>2026-03-31T11:47:20Z</time></trkpt><trkpt lat="42.450300962686015" lon="-1.3742033449926783"><ele>464.0</ele><time>2026-03-31T11:47:21Z</time></trkpt><trkpt lat="42.45021122528397" lon="-1.374352200440186"><ele>464.0</ele><time>2026-03-31T11:47:22Z</time></trkpt><trkpt lat="42.45009739020469" lon="-1.37443475209158"><ele>464.0</ele><time>2026-03-31T11:47:23Z</time></trkpt><trkpt lat="42.450002950978146" lon="-1.3744758146100684"><ele>464.0</ele><time>2026-03-31T11:47:24Z</time></trkpt><trkpt lat="42.4500139451298" lon="-1.3746117883056352"><ele>464.0</ele><time>2026-03-31T11:47:26Z</time></trkpt><trkpt lat="42.45008114669858" lon="-1.3746322143720577"><ele>464.0</ele><time>2026-03-31T11:47:27Z</time></trkpt><trkpt lat="42.45015982842253" lon="-1.3745937182071946"><ele>464.0</ele><time>2026-03-31T11:47:28Z</time></trkpt><trkpt lat="42.450265459923415" lon="-1.374484416697028"><ele>464.0</ele><time>2026-03-31T11:47:29Z</time></trkpt><trkpt lat="42.45037030591523" lon="-1.3743583087591489"><ele>464.0</ele><time>2026-03-31T11:47:30Z</time></trkpt><trkpt lat="42.45046011576985" lon="-1.3742222594658307"><ele>464.0</ele><time>2026-03-31T11:47:31Z</time></trkpt><trkpt lat="42.45053705084091" lon="-1.3740537918385003"><ele>458.0</ele><time>2026-03-31T11:47:32Z</time></trkpt><trkpt lat="42.45061262644495" lon="-1.373847126550035"><ele>452.0</ele><time>2026-03-31T11:47:33Z</time></trkpt><trkpt lat="42.450684737415415" lon="-1.373632906712786"><ele>446.0</ele><time>2026-03-31T11:47:34Z</time></trkpt><trkpt lat="42.450767656854985" lon="-1.3734050788688323"><ele>446.0</ele><time>2026-03-31T11:47:35Z</time></trkpt><trkpt lat="42.45083934767922" lon="-1.373167373080547"><ele>446.0</ele><time>2026-03-31T11:47:36Z</time></trkpt><trkpt lat="42.45089050648616" lon="-1.3729316796282791"><ele>446.0</ele><time>2026-03-31T11:47:37Z</time></trkpt><trkpt lat="42.45092675198786" lon="-1.3726926479863402"><ele>446.3333333333333</ele><time>2026-03-31T11:47:38Z</time></trkpt><trkpt lat="42.45096821254667" lon="-1.3724535458218403"><ele>446.66666666666663</ele><time>2026-03-31T11:47:39Z</time></trkpt><trkpt lat="42.45101301327258" lon="-1.3722182236586216"><ele>447.0</ele><time>2026-03-31T11:47:40Z</time></trkpt><trkpt lat="42.4510601374248" lon="-1.3719913766907892"><ele>446.0</ele><time>2026-03-31T11:47:41Z</time></trkpt><trkpt lat="42.45112277269344" lon="-1.3717935975661826"><ele>445.0</ele><time>2026-03-31T11:47:42Z</time></trkpt><trkpt lat="42.451217421911025" lon="-1.3716277904256455"><ele>444.0</ele><time>2026-03-31T11:47:43Z</time></trkpt><trkpt lat="42.451354678262405" lon="-1.3715196666585137"><ele>443.66666666666663</ele><time>2026-03-31T11:47:44Z</time></trkpt><trkpt lat="42.45152696742282" lon="-1.3714630674284014"><ele>443.3333333333333</ele><time>2026-03-31T11:47:45Z</time></trkpt><trkpt lat="42.451714691947664" lon="-1.3714665573305114"><ele>443.0</ele><time>2026-03-31T11:47:46Z</time></trkpt><trkpt lat="42.45191268446365" lon="-1.371528113565312"><ele>443.0</ele><time>2026-03-31T11:47:47Z</time></trkpt><trkpt lat="42.452108993700016" lon="-1.3715645769650417"><ele>443.0</ele><time>2026-03-31T11:47:48Z</time></trkpt><trkpt lat="42.45230971728152" lon="-1.3715823820613706"><ele>443.0</ele><time>2026-03-31T11:47:49Z</time></trkpt><trkpt lat="42.45251218203551" lon="-1.3716016093519998"><ele>443.3333333333333</ele><time>2026-03-31T11:47:50Z</time></trkpt><trkpt lat="42.45270882694633" lon="-1.3716143424697569"><ele>443.66666666666663</ele><time>2026-03-31T11:47:51Z</time></trkpt><trkpt lat="42.45289529642327" lon="-1.3716117941924886"><ele>444.0</ele><time>2026-03-31T11:47:52Z</time></trkpt><trkpt lat="42.453069046985014" lon="-1.3715809253815001"><ele>445.0</ele><time>2026-03-31T11:47:53Z</time></trkpt><trkpt lat="42.45321783295864" lon="-1.3715393996750707"><ele>446.0</ele><time>2026-03-31T11:47:54Z</time></trkpt><trkpt lat="42.45336487987615" lon="-1.371500865989744"><ele>447.0</ele><time>2026-03-31T11:47:55Z</time></trkpt><trkpt lat="42.45351637206056" lon="-1.3714791303042413"><ele>447.0</ele><time>2026-03-31T11:47:56Z</time></trkpt><trkpt lat="42.4536763588599" lon="-1.3715009379641518"><ele>447.0</ele><time>2026-03-31T11:47:57Z</time></trkpt><trkpt lat="42.45384473873556" lon="-1.3715814596439846"><ele>447.0</ele><time>2026-03-31T11:47:58Z</time></trkpt><trkpt lat="42.45402933955458" lon="-1.371676725573591"><ele>448.66666666666663</ele><time>2026-03-31T11:47:59Z</time></trkpt><trkpt lat="42.45423357940181" lon="-1.3717617996404277"><ele>450.3333333333333</ele><time>2026-03-31T11:48:00Z</time></trkpt><trkpt lat="42.45444791576762" lon="-1.3718278855317643"><ele>452.0</ele><time>2026-03-31T11:48:01Z</time></trkpt><trkpt lat="42.45465948471839" lon="-1.3718792543869063"><ele>453.66666666666663</ele><time>2026-03-31T11:48:02Z</time></trkpt><trkpt lat="42.45487121604089" lon="-1.3719227632291962"><ele>455.33333333333337</ele><time>2026-03-31T11:48:03Z</time></trkpt><trkpt lat="42.455079970553996" lon="-1.3719684705099195"><ele>457.0</ele><time>2026-03-31T11:48:04Z</time></trkpt><trkpt lat="42.45529565139139" lon="-1.3720135269159595"><ele>458.33333333333337</ele><time>2026-03-31T11:48:05Z</time></trkpt><trkpt lat="42.4555010183569" lon="-1.3720446357537264"><ele>459.66666666666663</ele><time>2026-03-31T11:48:06Z</time></trkpt><trkpt lat="42.455708876691205" lon="-1.372074301125561"><ele>461.0</ele><time>2026-03-31T11:48:07Z</time></trkpt><trkpt lat="42.45591235089315" lon="-1.3721045650597554"><ele>461.0</ele><time>2026-03-31T11:48:08Z</time></trkpt><trkpt lat="42.4561205047612" lon="-1.372133772521357"><ele>461.0</ele><time>2026-03-31T11:48:09Z</time></trkpt><trkpt lat="42.45632138631251" lon="-1.372164918004931"><ele>461.0</ele><time>2026-03-31T11:48:10Z</time></trkpt><trkpt lat="42.45651634864128" lon="-1.3721905857228551"><ele>462.3333333333333</ele><time>2026-03-31T11:48:11Z</time></trkpt><trkpt lat="42.45671248024434" lon="-1.3722197640731844"><ele>463.66666666666663</ele><time>2026-03-31T11:48:12Z</time></trkpt><trkpt lat="42.45692558685266" lon="-1.3722608678237709"><ele>465.0</ele><time>2026-03-31T11:48:13Z</time></trkpt><trkpt lat="42.457134707931026" lon="-1.372294700947251"><ele>465.33333333333337</ele><time>2026-03-31T11:48:14Z</time></trkpt><trkpt lat="42.457345584799825" lon="-1.3723197720404665"><ele>465.6666666666667</ele><time>2026-03-31T11:48:15Z</time></trkpt><trkpt lat="42.457548748413345" lon="-1.3723482173367034"><ele>466.0</ele><time>2026-03-31T11:48:16Z</time></trkpt><trkpt lat="42.457748594642716" lon="-1.3723812392829964"><ele>466.0</ele><time>2026-03-31T11:48:17Z</time></trkpt><trkpt lat="42.45794538667202" lon="-1.3724076951584485"><ele>466.0</ele><time>2026-03-31T11:48:18Z</time></trkpt><trkpt lat="42.458149154803685" lon="-1.3724349972679284"><ele>466.0</ele><time>2026-03-31T11:48:19Z</time></trkpt><trkpt lat="42.45835498825204" lon="-1.3724671130216322"><ele>467.0</ele><time>2026-03-31T11:48:20Z</time></trkpt><trkpt lat="42.458556110203325" lon="-1.3724954422036644"><ele>468.0</ele><time>2026-03-31T11:48:21Z</time></trkpt><trkpt lat="42.45876041898258" lon="-1.3725103259294378"><ele>469.0</ele><time>2026-03-31T11:48:22Z</time></trkpt><trkpt lat="42.4589613534817" lon="-1.37251216269716"><ele>470.33333333333337</ele><time>2026-03-31T11:48:23Z</time></trkpt><trkpt lat="42.45917404126072" lon="-1.3725123516713933"><ele>471.66666666666663</ele><time>2026-03-31T11:48:24Z</time></trkpt><trkpt lat="42.4593887419614" lon="-1.3725076616456091"><ele>473.0</ele><time>2026-03-31T11:48:25Z</time></trkpt><trkpt lat="42.45958872149547" lon="-1.372501582213866"><ele>473.66666666666663</ele><time>2026-03-31T11:48:26Z</time></trkpt><trkpt lat="42.45979499882276" lon="-1.3725003903254132"><ele>474.33333333333337</ele><time>2026-03-31T11:48:27Z</time></trkpt><trkpt lat="42.45997922858715" lon="-1.3725031067423497"><ele>475.0</ele><time>2026-03-31T11:48:28Z</time></trkpt><trkpt lat="42.46017220243043" lon="-1.3724857414336389"><ele>475.0</ele><time>2026-03-31T11:48:29Z</time></trkpt><trkpt lat="42.46037882680959" lon="-1.3724582967012808"><ele>475.0</ele><time>2026-03-31T11:48:30Z</time></trkpt><trkpt lat="42.46055968282825" lon="-1.3724394743309813"><ele>475.0</ele><time>2026-03-31T11:48:31Z</time></trkpt><trkpt lat="42.46073071599989" lon="-1.372437464838803"><ele>473.6666666666667</ele><time>2026-03-31T11:48:32Z</time></trkpt><trkpt lat="42.46089213211937" lon="-1.3724363704331104"><ele>472.33333333333337</ele><time>2026-03-31T11:48:33Z</time></trkpt><trkpt lat="42.46108360482083" lon="-1.3724015081465653"><ele>471.0</ele><time>2026-03-31T11:48:34Z</time></trkpt><trkpt lat="42.46127408002448" lon="-1.3723210217794464"><ele>471.66666666666663</ele><time>2026-03-31T11:48:35Z</time></trkpt><trkpt lat="42.46146614939489" lon="-1.3722070892799154"><ele>472.3333333333333</ele><time>2026-03-31T11:48:36Z</time></trkpt><trkpt lat="42.461658059771096" lon="-1.3720869301879504"><ele>473.0</ele><time>2026-03-31T11:48:37Z</time></trkpt><trkpt lat="42.461847052822435" lon="-1.3719858487968009"><ele>473.0</ele><time>2026-03-31T11:48:38Z</time></trkpt><trkpt lat="42.46203227873047" lon="-1.3719076192330302"><ele>473.0</ele><time>2026-03-31T11:48:39Z</time></trkpt><trkpt lat="42.46223968278114" lon="-1.371833684680099"><ele>473.0</ele><time>2026-03-31T11:48:40Z</time></trkpt><trkpt lat="42.46245226836202" lon="-1.3717788342110644"><ele>470.0</ele><time>2026-03-31T11:48:41Z</time></trkpt><trkpt lat="42.46267133286807" lon="-1.3717081757640845"><ele>467.0</ele><time>2026-03-31T11:48:42Z</time></trkpt><trkpt lat="42.462889062307205" lon="-1.371631411888164"><ele>467.0</ele><time>2026-03-31T11:48:43Z</time></trkpt><trkpt lat="42.46311604169007" lon="-1.3715634471436193"><ele>467.0</ele><time>2026-03-31T11:48:44Z</time></trkpt><trkpt lat="42.46333353511185" lon="-1.3714915882485637"><ele>467.0</ele><time>2026-03-31T11:48:45Z</time></trkpt><trkpt lat="42.46356050477559" lon="-1.3713964962255147"><ele>467.0</ele><time>2026-03-31T11:48:46Z</time></trkpt><trkpt lat="42.46377414160626" lon="-1.371290772469932"><ele>468.5</ele><time>2026-03-31T11:48:47Z</time></trkpt><trkpt lat="42.46399349618276" lon="-1.3711779792872052"><ele>470.0</ele><time>2026-03-31T11:48:48Z</time></trkpt><trkpt lat="42.46420907731313" lon="-1.3710709271318369"><ele>470.0</ele><time>2026-03-31T11:48:49Z</time></trkpt><trkpt lat="42.464429534381416" lon="-1.3709659965530832"><ele>470.0</ele><time>2026-03-31T11:48:50Z</time></trkpt><trkpt lat="42.46465912592506" lon="-1.3708550534796333"><ele>471.0</ele><time>2026-03-31T11:48:51Z</time></trkpt><trkpt lat="42.46489258406143" lon="-1.3707508785569156"><ele>472.0</ele><time>2026-03-31T11:48:52Z</time></trkpt><trkpt lat="42.4651335755791" lon="-1.3706406036205385"><ele>473.5</ele><time>2026-03-31T11:48:53Z</time></trkpt><trkpt lat="42.46537382930985" lon="-1.3705147744937718"><ele>475.0</ele><time>2026-03-31T11:48:54Z</time></trkpt><trkpt lat="42.465613730534876" lon="-1.3703938171269947"><ele>476.0</ele><time>2026-03-31T11:48:55Z</time></trkpt><trkpt lat="42.4658593697279" lon="-1.3702808377381615"><ele>477.0</ele><time>2026-03-31T11:48:56Z</time></trkpt><trkpt lat="42.46609475736196" lon="-1.370168628301154"><ele>478.5</ele><time>2026-03-31T11:48:57Z</time></trkpt><trkpt lat="42.466326779115484" lon="-1.3700561436014231"><ele>480.0</ele><time>2026-03-31T11:48:58Z</time></trkpt><trkpt lat="42.466551438267544" lon="-1.3699434442703058"><ele>480.0</ele><time>2026-03-31T11:48:59Z</time></trkpt><trkpt lat="42.46677622802745" lon="-1.3698358179027534"><ele>480.0</ele><time>2026-03-31T11:49:00Z</time></trkpt><trkpt lat="42.467001261835314" lon="-1.369761325324218"><ele>479.5</ele><time>2026-03-31T11:49:01Z</time></trkpt><trkpt lat="42.467226668459624" lon="-1.3697002944855148"><ele>479.0</ele><time>2026-03-31T11:49:02Z</time></trkpt><trkpt lat="42.467452609714194" lon="-1.3696045142416924"><ele>484.5</ele><time>2026-03-31T11:49:03Z</time></trkpt><trkpt lat="42.4676807135056" lon="-1.3694807350118878"><ele>490.0</ele><time>2026-03-31T11:49:04Z</time></trkpt><trkpt lat="42.46790488196761" lon="-1.3693489793661047"><ele>487.0</ele><time>2026-03-31T11:49:05Z</time></trkpt><trkpt lat="42.468116961272095" lon="-1.369220635336754"><ele>484.0</ele><time>2026-03-31T11:49:06Z</time></trkpt><trkpt lat="42.46832564612466" lon="-1.3690813346750315"><ele>484.0</ele><time>2026-03-31T11:49:07Z</time></trkpt><trkpt lat="42.46852769016405" lon="-1.3689175763072083"><ele>484.0</ele><time>2026-03-31T11:49:08Z</time></trkpt><trkpt lat="42.468725750409746" lon="-1.368732077299489"><ele>486.0</ele><time>2026-03-31T11:49:09Z</time></trkpt><trkpt lat="42.46891466378814" lon="-1.3685397749294905"><ele>488.0</ele><time>2026-03-31T11:49:10Z</time></trkpt><trkpt lat="42.4691155901626" lon="-1.368334531471325"><ele>488.0</ele><time>2026-03-31T11:49:11Z</time></trkpt><trkpt lat="42.46931639350676" lon="-1.368131328449089"><ele>488.0</ele><time>2026-03-31T11:49:12Z</time></trkpt><trkpt lat="42.46950800838403" lon="-1.367940601766725"><ele>489.0</ele><time>2026-03-31T11:49:13Z</time></trkpt><trkpt lat="42.469702309646976" lon="-1.3677386711821993"><ele>490.0</ele><time>2026-03-31T11:49:14Z</time></trkpt><trkpt lat="42.46988954318427" lon="-1.3675323392385197"><ele>490.0</ele><time>2026-03-31T11:49:15Z</time></trkpt><trkpt lat="42.47006776404964" lon="-1.3673113721625283"><ele>490.0</ele><time>2026-03-31T11:49:16Z</time></trkpt><trkpt lat="42.4702398030548" lon="-1.3670902482630825"><ele>491.0</ele><time>2026-03-31T11:49:17Z</time></trkpt><trkpt lat="42.47042250988172" lon="-1.3668789365684406"><ele>492.0</ele><time>2026-03-31T11:49:18Z</time></trkpt><trkpt lat="42.47060516567495" lon="-1.3666683791888807"><ele>492.0</ele><time>2026-03-31T11:49:19Z</time></trkpt><trkpt lat="42.47077720020914" lon="-1.3664622280826972"><ele>492.0</ele><time>2026-03-31T11:49:20Z</time></trkpt><trkpt lat="42.47095593922547" lon="-1.3662549838266351"><ele>494.0</ele><time>2026-03-31T11:49:21Z</time></trkpt><trkpt lat="42.47112982131681" lon="-1.3660572860753413"><ele>496.0</ele><time>2026-03-31T11:49:22Z</time></trkpt><trkpt lat="42.471293747276334" lon="-1.3658515142710814"><ele>496.0</ele><time>2026-03-31T11:49:23Z</time></trkpt><trkpt lat="42.47146732933064" lon="-1.3656471225869247"><ele>496.0</ele><time>2026-03-31T11:49:24Z</time></trkpt><trkpt lat="42.47164124178698" lon="-1.3654457430639586"><ele>498.5</ele><time>2026-03-31T11:49:25Z</time></trkpt><trkpt lat="42.47181111136328" lon="-1.3652399373187862"><ele>501.0</ele><time>2026-03-31T11:49:26Z</time></trkpt><trkpt lat="42.4719774451612" lon="-1.3650381300375982"><ele>500.66666666666663</ele><time>2026-03-31T11:49:27Z</time></trkpt><trkpt lat="42.47215216581166" lon="-1.364845966977011"><ele>500.3333333333333</ele><time>2026-03-31T11:49:28Z</time></trkpt><trkpt lat="42.47232143481218" lon="-1.3646477183018675"><ele>500.0</ele><time>2026-03-31T11:49:29Z</time></trkpt><trkpt lat="42.47248610609333" lon="-1.3644407715534745"><ele>502.3333333333333</ele><time>2026-03-31T11:49:30Z</time></trkpt><trkpt lat="42.47265561077218" lon="-1.3642564881086727"><ele>504.66666666666663</ele><time>2026-03-31T11:49:31Z</time></trkpt><trkpt lat="42.472831177233786" lon="-1.364055875383745"><ele>507.0</ele><time>2026-03-31T11:49:32Z</time></trkpt><trkpt lat="42.472992310064825" lon="-1.3638266872103493"><ele>507.0</ele><time>2026-03-31T11:49:33Z</time></trkpt><trkpt lat="42.47314009697403" lon="-1.363558331529381"><ele>507.0</ele><time>2026-03-31T11:49:34Z</time></trkpt><trkpt lat="42.473274406775595" lon="-1.363274971238417"><ele>510.5</ele><time>2026-03-31T11:49:35Z</time></trkpt><trkpt lat="42.47340699175831" lon="-1.3629779774723398"><ele>514.0</ele><time>2026-03-31T11:49:36Z</time></trkpt><trkpt lat="42.473548779289914" lon="-1.3626690088255407"><ele>514.0</ele><time>2026-03-31T11:49:37Z</time></trkpt><trkpt lat="42.473701423073564" lon="-1.362348458012428"><ele>514.0</ele><time>2026-03-31T11:49:38Z</time></trkpt><trkpt lat="42.473859248543064" lon="-1.3620147778534006"><ele>512.5</ele><time>2026-03-31T11:49:39Z</time></trkpt><trkpt lat="42.47401558542171" lon="-1.3616922413679642"><ele>511.0</ele><time>2026-03-31T11:49:40Z</time></trkpt><trkpt lat="42.47417438529261" lon="-1.3613656519292308"><ele>513.5</ele><time>2026-03-31T11:49:41Z</time></trkpt><trkpt lat="42.47433994261343" lon="-1.3610386984708525"><ele>516.0</ele><time>2026-03-31T11:49:42Z</time></trkpt><trkpt lat="42.47452307910656" lon="-1.3607118023572997"><ele>517.0</ele><time>2026-03-31T11:49:43Z</time></trkpt><trkpt lat="42.47472117671829" lon="-1.3603924872254645"><ele>518.0</ele><time>2026-03-31T11:49:44Z</time></trkpt><trkpt lat="42.47491416122475" lon="-1.3600758905496009"><ele>518.0</ele><time>2026-03-31T11:49:45Z</time></trkpt><trkpt lat="42.475098436919936" lon="-1.359768728764011"><ele>518.0</ele><time>2026-03-31T11:49:46Z</time></trkpt><trkpt lat="42.47527969033783" lon="-1.359468234295609"><ele>519.5</ele><time>2026-03-31T11:49:47Z</time></trkpt><trkpt lat="42.47546039365653" lon="-1.3591613755020822"><ele>521.0</ele><time>2026-03-31T11:49:48Z</time></trkpt><trkpt lat="42.47564179814862" lon="-1.3588555458397098"><ele>523.0</ele><time>2026-03-31T11:49:49Z</time></trkpt><trkpt lat="42.47582513890062" lon="-1.3585643167901629"><ele>525.0</ele><time>2026-03-31T11:49:50Z</time></trkpt><trkpt lat="42.476005114023934" lon="-1.3582769733799576"><ele>527.5</ele><time>2026-03-31T11:49:51Z</time></trkpt><trkpt lat="42.47619926437366" lon="-1.3580166221670242"><ele>530.0</ele><time>2026-03-31T11:49:52Z</time></trkpt><trkpt lat="42.47641703155686" lon="-1.3577811371274822"><ele>530.5</ele><time>2026-03-31T11:49:53Z</time></trkpt><trkpt lat="42.47664992812008" lon="-1.3575613673699687"><ele>531.0</ele><time>2026-03-31T11:49:54Z</time></trkpt><trkpt lat="42.476889413354584" lon="-1.357361940121587"><ele>534.0</ele><time>2026-03-31T11:49:55Z</time></trkpt><trkpt lat="42.4771257285754" lon="-1.357173946525243"><ele>537.0</ele><time>2026-03-31T11:49:56Z</time></trkpt><trkpt lat="42.477372588853896" lon="-1.3569887539559677"><ele>537.0</ele><time>2026-03-31T11:49:57Z</time></trkpt><trkpt lat="42.47760660509508" lon="-1.3567901925366261"><ele>537.0</ele><time>2026-03-31T11:49:58Z</time></trkpt><trkpt lat="42.47784366634081" lon="-1.3566065767078588"><ele>536.5</ele><time>2026-03-31T11:49:59Z</time></trkpt><trkpt lat="42.478076186590236" lon="-1.3564270470388498"><ele>536.0</ele><time>2026-03-31T11:50:00Z</time></trkpt><trkpt lat="42.47828321771941" lon="-1.3562611802456674"><ele>536.6666666666666</ele><time>2026-03-31T11:50:01Z</time></trkpt><trkpt lat="42.478481424062075" lon="-1.3561060661095674"><ele>537.3333333333334</ele><time>2026-03-31T11:50:02Z</time></trkpt><trkpt lat="42.47866795839924" lon="-1.355949551463166"><ele>538.0</ele><time>2026-03-31T11:50:03Z</time></trkpt><trkpt lat="42.478844826402415" lon="-1.3558027659587712"><ele>538.3333333333334</ele><time>2026-03-31T11:50:04Z</time></trkpt><trkpt lat="42.47902794360494" lon="-1.3556524082860666"><ele>538.6666666666666</ele><time>2026-03-31T11:50:05Z</time></trkpt><trkpt lat="42.47921059551682" lon="-1.3555134152245838"><ele>539.0</ele><time>2026-03-31T11:50:06Z</time></trkpt><trkpt lat="42.47938493897088" lon="-1.3553631274180167"><ele>541.3333333333333</ele><time>2026-03-31T11:50:07Z</time></trkpt><trkpt lat="42.4795741698977" lon="-1.3552188405124739"><ele>543.6666666666666</ele><time>2026-03-31T11:50:08Z</time></trkpt><trkpt lat="42.479764524227406" lon="-1.3550784054642613"><ele>546.0</ele><time>2026-03-31T11:50:09Z</time></trkpt><trkpt lat="42.479942942338084" lon="-1.3549321561169896"><ele>546.0</ele><time>2026-03-31T11:50:10Z</time></trkpt><trkpt lat="42.48012142106985" lon="-1.3547813670829403"><ele>546.0</ele><time>2026-03-31T11:50:11Z</time></trkpt><trkpt lat="42.48029600491197" lon="-1.354637121347489"><ele>546.0</ele><time>2026-03-31T11:50:12Z</time></trkpt><trkpt lat="42.48047804594704" lon="-1.3544957809637965"><ele>549.0</ele><time>2026-03-31T11:50:13Z</time></trkpt><trkpt lat="42.48065500377364" lon="-1.3543525247513015"><ele>552.0</ele><time>2026-03-31T11:50:14Z</time></trkpt><trkpt lat="42.480837466814876" lon="-1.354210341914461"><ele>555.0</ele><time>2026-03-31T11:50:15Z</time></trkpt><trkpt lat="42.481018012387935" lon="-1.3540641496577843"><ele>555.0</ele><time>2026-03-31T11:50:16Z</time></trkpt><trkpt lat="42.48120400590116" lon="-1.353912757752745"><ele>555.0</ele><time>2026-03-31T11:50:17Z</time></trkpt><trkpt lat="42.48139074872211" lon="-1.3537633980015003"><ele>555.0</ele><time>2026-03-31T11:50:18Z</time></trkpt><trkpt lat="42.48158308141498" lon="-1.353615881301064"><ele>555.0</ele><time>2026-03-31T11:50:19Z</time></trkpt><trkpt lat="42.48177445530735" lon="-1.3534628357089185"><ele>555.0</ele><time>2026-03-31T11:50:20Z</time></trkpt><trkpt lat="42.481963651895015" lon="-1.3532967152763862"><ele>555.0</ele><time>2026-03-31T11:50:21Z</time></trkpt><trkpt lat="42.48217073343457" lon="-1.3531460148626948"><ele>560.5</ele><time>2026-03-31T11:50:22Z</time></trkpt><trkpt lat="42.48236615193399" lon="-1.3529899513260115"><ele>566.0</ele><time>2026-03-31T11:50:23Z</time></trkpt><trkpt lat="42.48255848509263" lon="-1.3528333620402324"><ele>566.0</ele><time>2026-03-31T11:50:24Z</time></trkpt><trkpt lat="42.48276052975243" lon="-1.3526769722676828"><ele>566.0</ele><time>2026-03-31T11:50:25Z</time></trkpt><trkpt lat="42.48295742690129" lon="-1.3525217846051658"><ele>564.0</ele><time>2026-03-31T11:50:26Z</time></trkpt><trkpt lat="42.483148732946" lon="-1.3523638158180875"><ele>562.0</ele><time>2026-03-31T11:50:27Z</time></trkpt><trkpt lat="42.48334346554668" lon="-1.3522085536323312"><ele>564.0</ele><time>2026-03-31T11:50:28Z</time></trkpt><trkpt lat="42.483534627743936" lon="-1.352053100452753"><ele>566.0</ele><time>2026-03-31T11:50:29Z</time></trkpt><trkpt lat="42.48371716130062" lon="-1.3519010635348065"><ele>568.0</ele><time>2026-03-31T11:50:30Z</time></trkpt><trkpt lat="42.483907456220074" lon="-1.3517492835623135"><ele>568.0</ele><time>2026-03-31T11:50:31Z</time></trkpt><trkpt lat="42.48409066802024" lon="-1.3516019345528272"><ele>568.0</ele><time>2026-03-31T11:50:32Z</time></trkpt><trkpt lat="42.484271769359516" lon="-1.3514552363467571"><ele>568.0</ele><time>2026-03-31T11:50:33Z</time></trkpt><trkpt lat="42.48445716752272" lon="-1.3513045248177953"><ele>570.6666666666667</ele><time>2026-03-31T11:50:34Z</time></trkpt><trkpt lat="42.48462974672826" lon="-1.3511484321935874"><ele>573.3333333333334</ele><time>2026-03-31T11:50:35Z</time></trkpt><trkpt lat="42.4848132427406" lon="-1.3510001298050518"><ele>576.0</ele><time>2026-03-31T11:50:36Z</time></trkpt><trkpt lat="42.484972683874766" lon="-1.3508490439551306"><ele>576.0</ele><time>2026-03-31T11:50:37Z</time></trkpt><trkpt lat="42.48509744233577" lon="-1.3506661697771394"><ele>576.0</ele><time>2026-03-31T11:50:38Z</time></trkpt><trkpt lat="42.48516781893347" lon="-1.3504686038614702"><ele>576.0</ele><time>2026-03-31T11:50:39Z</time></trkpt><trkpt lat="42.48525622774527" lon="-1.3502884093010017"><ele>577.6666666666666</ele><time>2026-03-31T11:50:40Z</time></trkpt><trkpt lat="42.48536298706879" lon="-1.3501224805209155"><ele>579.3333333333333</ele><time>2026-03-31T11:50:41Z</time></trkpt><trkpt lat="42.48549281577065" lon="-1.3500157300803401"><ele>581.0</ele><time>2026-03-31T11:50:42Z</time></trkpt><trkpt lat="42.48565081173145" lon="-1.3499796413853713"><ele>581.0</ele><time>2026-03-31T11:50:43Z</time></trkpt><trkpt lat="42.48581421044927" lon="-1.3500112378637288"><ele>581.0</ele><time>2026-03-31T11:50:44Z</time></trkpt><trkpt lat="42.48598111561065" lon="-1.3500872632253158"><ele>581.0</ele><time>2026-03-31T11:50:45Z</time></trkpt><trkpt lat="42.48613486254314" lon="-1.3501598008126832"><ele>581.0</ele><time>2026-03-31T11:50:46Z</time></trkpt><trkpt lat="42.486255071024026" lon="-1.3502691269531124"><ele>581.0</ele><time>2026-03-31T11:50:47Z</time></trkpt><trkpt lat="42.48632222286456" lon="-1.3504455375010331"><ele>581.0</ele><time>2026-03-31T11:50:48Z</time></trkpt><trkpt lat="42.48632073686653" lon="-1.3506664950019782"><ele>583.6666666666666</ele><time>2026-03-31T11:50:49Z</time></trkpt><trkpt lat="42.486332011460185" lon="-1.3508760534082678"><ele>586.3333333333334</ele><time>2026-03-31T11:50:50Z</time></trkpt><trkpt lat="42.48645044070158" lon="-1.3510131030980193"><ele>589.0</ele><time>2026-03-31T11:50:51Z</time></trkpt><trkpt lat="42.486598237854224" lon="-1.351140659459405"><ele>589.0</ele><time>2026-03-31T11:50:52Z</time></trkpt><trkpt lat="42.48675499913915" lon="-1.3512855692532362"><ele>589.0</ele><time>2026-03-31T11:50:53Z</time></trkpt><trkpt lat="42.48689956252666" lon="-1.3513754825460633"><ele>589.0</ele><time>2026-03-31T11:50:54Z</time></trkpt><trkpt lat="42.48699952778402" lon="-1.3514041090251105"><ele>589.0</ele><time>2026-03-31T11:50:55Z</time></trkpt><trkpt lat="42.48706565774332" lon="-1.3513435676001353"><ele>589.0</ele><time>2026-03-31T11:50:56Z</time></trkpt><trkpt lat="42.487021835391126" lon="-1.3510985090811183"><ele>589.0</ele><time>2026-03-31T11:50:58Z</time></trkpt><trkpt lat="42.486989603541645" lon="-1.3509339805180394"><ele>589.0</ele><time>2026-03-31T11:50:59Z</time></trkpt><trkpt lat="42.48696803996629" lon="-1.3507258867186884"><ele>588.75</ele><time>2026-03-31T11:51:00Z</time></trkpt><trkpt lat="42.486984779268134" lon="-1.3505318881481654"><ele>588.5</ele><time>2026-03-31T11:51:01Z</time></trkpt><trkpt lat="42.487073351040166" lon="-1.3503831698228528"><ele>588.25</ele><time>2026-03-31T11:51:02Z</time></trkpt><trkpt lat="42.487212047729166" lon="-1.350264777081087"><ele>588.0</ele><time>2026-03-31T11:51:03Z</time></trkpt><trkpt lat="42.48737084884586" lon="-1.350143893670632"><ele>591.3333333333334</ele><time>2026-03-31T11:51:04Z</time></trkpt><trkpt lat="42.48752788671556" lon="-1.350016731569245"><ele>594.6666666666667</ele><time>2026-03-31T11:51:05Z</time></trkpt><trkpt lat="42.48770458881052" lon="-1.3498997621492506"><ele>598.0</ele><time>2026-03-31T11:51:06Z</time></trkpt><trkpt lat="42.48789162514831" lon="-1.3498025222201795"><ele>600.6666666666667</ele><time>2026-03-31T11:51:07Z</time></trkpt><trkpt lat="42.48807862110315" lon="-1.3497119973053755"><ele>603.3333333333334</ele><time>2026-03-31T11:51:08Z</time></trkpt><trkpt lat="42.48825085651946" lon="-1.3496157803945301"><ele>606.0</ele><time>2026-03-31T11:51:09Z</time></trkpt><trkpt lat="42.48839689675707" lon="-1.3494532448295287"><ele>606.0</ele><time>2026-03-31T11:51:10Z</time></trkpt><trkpt lat="42.488516076759026" lon="-1.3492679787441342"><ele>606.0</ele><time>2026-03-31T11:51:11Z</time></trkpt><trkpt lat="42.488596137208454" lon="-1.349088199202092"><ele>606.0</ele><time>2026-03-31T11:51:12Z</time></trkpt><trkpt lat="42.48865014271869" lon="-1.3489241478152074"><ele>608.0</ele><time>2026-03-31T11:51:13Z</time></trkpt><trkpt lat="42.48865165741077" lon="-1.3487761542554708"><ele>610.0</ele><time>2026-03-31T11:51:14Z</time></trkpt><trkpt lat="42.48859353391887" lon="-1.3486660355036555"><ele>612.0</ele><time>2026-03-31T11:51:15Z</time></trkpt><trkpt lat="42.488492744709" lon="-1.3485824212647983"><ele>614.0</ele><time>2026-03-31T11:51:16Z</time></trkpt><trkpt lat="42.4883559044796" lon="-1.3485046480731195"><ele>614.0</ele><time>2026-03-31T11:51:17Z</time></trkpt><trkpt lat="42.48818386667875" lon="-1.3484030437773393"><ele>614.0</ele><time>2026-03-31T11:51:18Z</time></trkpt><trkpt lat="42.48801562623719" lon="-1.3483162448090023"><ele>614.0</ele><time>2026-03-31T11:51:19Z</time></trkpt><trkpt lat="42.487870581863504" lon="-1.348237042733219"><ele>612.6</ele><time>2026-03-31T11:51:20Z</time></trkpt><trkpt lat="42.48775179435743" lon="-1.3481531980054993"><ele>611.2</ele><time>2026-03-31T11:51:21Z</time></trkpt><trkpt lat="42.487693454202805" lon="-1.3480555752200813"><ele>609.8000000000001</ele><time>2026-03-31T11:51:22Z</time></trkpt><trkpt lat="42.487702239571284" lon="-1.347949549574437"><ele>608.4</ele><time>2026-03-31T11:51:23Z</time></trkpt><trkpt lat="42.48776588114378" lon="-1.347887019617006"><ele>607.0</ele><time>2026-03-31T11:51:24Z</time></trkpt><trkpt lat="42.487849230756076" lon="-1.3478893949377595"><ele>608.75</ele><time>2026-03-31T11:51:25Z</time></trkpt><trkpt lat="42.48793180274656" lon="-1.34795599792046"><ele>610.5</ele><time>2026-03-31T11:51:26Z</time></trkpt><trkpt lat="42.488061812150896" lon="-1.348069019378438"><ele>612.25</ele><time>2026-03-31T11:51:27Z</time></trkpt><trkpt lat="42.48819989494483" lon="-1.348148723225868"><ele>614.0</ele><time>2026-03-31T11:51:28Z</time></trkpt><trkpt lat="42.48829889510411" lon="-1.3481533704627133"><ele>614.0</ele><time>2026-03-31T11:51:29Z</time></trkpt><trkpt lat="42.488426499054306" lon="-1.3481032497644656"><ele>614.0</ele><time>2026-03-31T11:51:30Z</time></trkpt><trkpt lat="42.48860251942215" lon="-1.348099493126782"><ele>614.0</ele><time>2026-03-31T11:51:31Z</time></trkpt><trkpt lat="42.488809819539064" lon="-1.3480906960711174"><ele>617.6666666666666</ele><time>2026-03-31T11:51:32Z</time></trkpt><trkpt lat="42.48899315887318" lon="-1.3481404864285267"><ele>621.3333333333334</ele><time>2026-03-31T11:51:33Z</time></trkpt><trkpt lat="42.489145298955506" lon="-1.3482352635888701"><ele>625.0</ele><time>2026-03-31T11:51:34Z</time></trkpt><trkpt lat="42.48928470014779" lon="-1.348386637648066"><ele>625.0</ele><time>2026-03-31T11:51:35Z</time></trkpt><trkpt lat="42.489412825159725" lon="-1.3485939805414549"><ele>625.0</ele><time>2026-03-31T11:51:36Z</time></trkpt><trkpt lat="42.48952914306601" lon="-1.3488414309988757"><ele>625.0</ele><time>2026-03-31T11:51:37Z</time></trkpt><trkpt lat="42.48959583236666" lon="-1.3490901996793452"><ele>630.0</ele><time>2026-03-31T11:51:38Z</time></trkpt><trkpt lat="42.489627431436894" lon="-1.3493176122903596"><ele>635.0</ele><time>2026-03-31T11:51:39Z</time></trkpt><trkpt lat="42.48964274140267" lon="-1.3495310262084421"><ele>640.0</ele><time>2026-03-31T11:51:40Z</time></trkpt><trkpt lat="42.48961022504093" lon="-1.3497403916379611"><ele>636.3333333333334</ele><time>2026-03-31T11:51:41Z</time></trkpt><trkpt lat="42.48950569186986" lon="-1.349925574525969"><ele>632.6666666666666</ele><time>2026-03-31T11:51:42Z</time></trkpt><trkpt lat="42.48937777025297" lon="-1.3500749954011557"><ele>629.0</ele><time>2026-03-31T11:51:43Z</time></trkpt><trkpt lat="42.489286158239565" lon="-1.350224965454166"><ele>629.0</ele><time>2026-03-31T11:51:44Z</time></trkpt><trkpt lat="42.489285173851776" lon="-1.3503769002495616"><ele>629.0</ele><time>2026-03-31T11:51:45Z</time></trkpt><trkpt lat="42.489363997712914" lon="-1.350460473096012"><ele>629.0</ele><time>2026-03-31T11:51:46Z</time></trkpt><trkpt lat="42.489436584972964" lon="-1.3505773350483883"><ele>629.0</ele><time>2026-03-31T11:51:47Z</time></trkpt><trkpt lat="42.48954547541819" lon="-1.3507385475573586"><ele>634.3333333333333</ele><time>2026-03-31T11:51:48Z</time></trkpt><trkpt lat="42.48967423641312" lon="-1.3509124102997538"><ele>639.6666666666666</ele><time>2026-03-31T11:51:49Z</time></trkpt><trkpt lat="42.48981239335771" lon="-1.3510895853298543"><ele>645.0</ele><time>2026-03-31T11:51:50Z</time></trkpt><trkpt lat="42.48994505318094" lon="-1.3512823332452273"><ele>643.6666666666666</ele><time>2026-03-31T11:51:51Z</time></trkpt><trkpt lat="42.490109311907005" lon="-1.3514147417663689"><ele>642.3333333333333</ele><time>2026-03-31T11:51:52Z</time></trkpt><trkpt lat="42.49026281190132" lon="-1.3515481217367238"><ele>641.0</ele><time>2026-03-31T11:51:53Z</time></trkpt><trkpt lat="42.490395000037324" lon="-1.351666856920724"><ele>642.25</ele><time>2026-03-31T11:51:54Z</time></trkpt><trkpt lat="42.49053630327939" lon="-1.3517100629593972"><ele>643.5</ele><time>2026-03-31T11:51:55Z</time></trkpt><trkpt lat="42.49067763767772" lon="-1.3517043683855217"><ele>644.75</ele><time>2026-03-31T11:51:56Z</time></trkpt><trkpt lat="42.490831281082244" lon="-1.3516860490462788"><ele>646.0</ele><time>2026-03-31T11:51:57Z</time></trkpt><trkpt lat="42.49098849786922" lon="-1.3516991554887838"><ele>646.0</ele><time>2026-03-31T11:51:58Z</time></trkpt><trkpt lat="42.49116522217039" lon="-1.3517512299027699"><ele>646.0</ele><time>2026-03-31T11:51:59Z</time></trkpt><trkpt lat="42.49134474979312" lon="-1.35188058056835"><ele>646.0</ele><time>2026-03-31T11:52:00Z</time></trkpt><trkpt lat="42.491516801386695" lon="-1.3520105367741926"><ele>642.6666666666667</ele><time>2026-03-31T11:52:01Z</time></trkpt><trkpt lat="42.49170556061318" lon="-1.3520473150900676"><ele>639.3333333333334</ele><time>2026-03-31T11:52:02Z</time></trkpt><trkpt lat="42.491896954966926" lon="-1.3520552401732682"><ele>636.0</ele><time>2026-03-31T11:52:03Z</time></trkpt><trkpt lat="42.49208071635302" lon="-1.3520494710401996"><ele>632.5</ele><time>2026-03-31T11:52:04Z</time></trkpt><trkpt lat="42.49224282563035" lon="-1.3520645662836512"><ele>629.0</ele><time>2026-03-31T11:52:05Z</time></trkpt><trkpt lat="42.49238882042442" lon="-1.352061672718721"><ele>625.5</ele><time>2026-03-31T11:52:06Z</time></trkpt><trkpt lat="42.49252125716741" lon="-1.3520951588982593"><ele>622.0</ele><time>2026-03-31T11:52:07Z</time></trkpt><trkpt lat="42.49260016041023" lon="-1.352185088213199"><ele>624.6</ele><time>2026-03-31T11:52:08Z</time></trkpt><trkpt lat="42.492648439418964" lon="-1.352312361057942"><ele>627.2</ele><time>2026-03-31T11:52:09Z</time></trkpt><trkpt lat="42.49270153488436" lon="-1.3524480660061184"><ele>629.8</ele><time>2026-03-31T11:52:10Z</time></trkpt><trkpt lat="42.49276319132858" lon="-1.3525769704513648"><ele>632.4</ele><time>2026-03-31T11:52:11Z</time></trkpt><trkpt lat="42.49282999231853" lon="-1.3526896372066923"><ele>635.0</ele><time>2026-03-31T11:52:12Z</time></trkpt><trkpt lat="42.492898273833475" lon="-1.352801366164047"><ele>634.2</ele><time>2026-03-31T11:52:13Z</time></trkpt><trkpt lat="42.492961934494225" lon="-1.3529064715585957"><ele>633.4</ele><time>2026-03-31T11:52:14Z</time></trkpt><trkpt lat="42.49303121255358" lon="-1.3530025988125796"><ele>632.6</ele><time>2026-03-31T11:52:15Z</time></trkpt><trkpt lat="42.49310396870013" lon="-1.3530920062870135"><ele>631.8</ele><time>2026-03-31T11:52:16Z</time></trkpt><trkpt lat="42.49317990470285" lon="-1.3531735261761768"><ele>631.0</ele><time>2026-03-31T11:52:17Z</time></trkpt><trkpt lat="42.493261117667686" lon="-1.3532412075614582"><ele>631.0</ele><time>2026-03-31T11:52:18Z</time></trkpt><trkpt lat="42.49334906816765" lon="-1.3532894935492097"><ele>631.0</ele><time>2026-03-31T11:52:19Z</time></trkpt><trkpt lat="42.49343578045276" lon="-1.3533203240551885"><ele>631.0</ele><time>2026-03-31T11:52:20Z</time></trkpt><trkpt lat="42.49352363579354" lon="-1.3533119185841433"><ele>631.0</ele><time>2026-03-31T11:52:21Z</time></trkpt><trkpt lat="42.49361084731006" lon="-1.3533041902332583"><ele>631.0</ele><time>2026-03-31T11:52:22Z</time></trkpt><trkpt lat="42.49370175350121" lon="-1.3532812105206429"><ele>631.8333333333334</ele><time>2026-03-31T11:52:23Z</time></trkpt><trkpt lat="42.49376584642181" lon="-1.3531732284072724"><ele>632.6666666666667</ele><time>2026-03-31T11:52:24Z</time></trkpt><trkpt lat="42.4937979039487" lon="-1.3530788430554301"><ele>633.5</ele><time>2026-03-31T11:52:25Z</time></trkpt><trkpt lat="42.49381653534383" lon="-1.352984945730718"><ele>634.3333333333334</ele><time>2026-03-31T11:52:26Z</time></trkpt><trkpt lat="42.493821066715206" lon="-1.3528895412764812"><ele>635.1666666666666</ele><time>2026-03-31T11:52:27Z</time></trkpt><trkpt lat="42.49382801910992" lon="-1.3527915109631201"><ele>636.0</ele><time>2026-03-31T11:52:28Z</time></trkpt><trkpt lat="42.49380880041197" lon="-1.3526914889422186"><ele>636.0</ele><time>2026-03-31T11:52:29Z</time></trkpt><trkpt lat="42.49378469909691" lon="-1.352586503757962"><ele>636.0</ele><time>2026-03-31T11:52:30Z</time></trkpt><trkpt lat="42.493756787550865" lon="-1.3524704843083637"><ele>636.0</ele><time>2026-03-31T11:52:31Z</time></trkpt><trkpt lat="42.49371841556029" lon="-1.3523481498008685"><ele>636.0</ele><time>2026-03-31T11:52:32Z</time></trkpt><trkpt lat="42.49367035210509" lon="-1.3522025510889222"><ele>636.0</ele><time>2026-03-31T11:52:33Z</time></trkpt><trkpt lat="42.49362389583321" lon="-1.352069256344955"><ele>630.75</ele><time>2026-03-31T11:52:34Z</time></trkpt><trkpt lat="42.49356855827177" lon="-1.351921952226951"><ele>625.5</ele><time>2026-03-31T11:52:35Z</time></trkpt><trkpt lat="42.493524823773626" lon="-1.3517744539734071"><ele>620.25</ele><time>2026-03-31T11:52:36Z</time></trkpt><trkpt lat="42.49350119966095" lon="-1.351584151987361"><ele>615.0</ele><time>2026-03-31T11:52:37Z</time></trkpt><trkpt lat="42.493536298062914" lon="-1.3514033534296153"><ele>615.0</ele><time>2026-03-31T11:52:38Z</time></trkpt><trkpt lat="42.49357077792819" lon="-1.3512807270494487"><ele>615.0</ele><time>2026-03-31T11:52:39Z</time></trkpt><trkpt lat="42.493646630087056" lon="-1.3510706187786339"><ele>615.0</ele><time>2026-03-31T11:52:40Z</time></trkpt><trkpt lat="42.493834387297134" lon="-1.3508741311953831"><ele>615.0</ele><time>2026-03-31T11:52:41Z</time></trkpt><trkpt lat="42.493960301376426" lon="-1.3507965720501331"><ele>615.0</ele><time>2026-03-31T11:52:42Z</time></trkpt><trkpt lat="42.49406584229923" lon="-1.3507362139591497"><ele>615.0</ele><time>2026-03-31T11:52:43Z</time></trkpt><trkpt lat="42.49419722727554" lon="-1.3506619936573658"><ele>615.0</ele><time>2026-03-31T11:52:44Z</time></trkpt><trkpt lat="42.494351008520596" lon="-1.350595123171617"><ele>615.0</ele><time>2026-03-31T11:52:45Z</time></trkpt><trkpt lat="42.49450838909442" lon="-1.350560785025484"><ele>615.0</ele><time>2026-03-31T11:52:46Z</time></trkpt><trkpt lat="42.49463764404166" lon="-1.3505595972618452"><ele>615.0</ele><time>2026-03-31T11:52:47Z</time></trkpt><trkpt lat="42.494738829750055" lon="-1.350567815886659"><ele>615.0</ele><time>2026-03-31T11:52:48Z</time></trkpt><trkpt lat="42.49486925540346" lon="-1.3505871940288736"><ele>613.6666666666666</ele><time>2026-03-31T11:52:49Z</time></trkpt><trkpt lat="42.4950995688989" lon="-1.3507088749714378"><ele>612.3333333333333</ele><time>2026-03-31T11:52:50Z</time></trkpt><trkpt lat="42.49520241995872" lon="-1.350790073789264"><ele>611.0</ele><time>2026-03-31T11:52:51Z</time></trkpt><trkpt lat="42.49532351791169" lon="-1.350891693938691"><ele>611.0</ele><time>2026-03-31T11:52:52Z</time></trkpt><trkpt lat="42.49541657991042" lon="-1.350966916506524"><ele>611.0</ele><time>2026-03-31T11:52:53Z</time></trkpt><trkpt lat="42.49550636013019" lon="-1.3510376996607565"><ele>611.0</ele><time>2026-03-31T11:52:54Z</time></trkpt><trkpt lat="42.4955715873757" lon="-1.3510775032523745"><ele>611.0</ele><time>2026-03-31T11:52:55Z</time></trkpt><trkpt lat="42.49563439189779" lon="-1.3511110841083038"><ele>611.0</ele><time>2026-03-31T11:52:56Z</time></trkpt><trkpt lat="42.4957824711219" lon="-1.3511082269602595"><ele>607.5</ele><time>2026-03-31T11:52:59Z</time></trkpt><trkpt lat="42.49591586290694" lon="-1.3510962306616827"><ele>604.0</ele><time>2026-03-31T11:53:00Z</time></trkpt><trkpt lat="42.49608280916721" lon="-1.3510852535893172"><ele>600.5</ele><time>2026-03-31T11:53:01Z</time></trkpt><trkpt lat="42.49620467893199" lon="-1.351074965946077"><ele>597.0</ele><time>2026-03-31T11:53:02Z</time></trkpt><trkpt lat="42.49629308244474" lon="-1.3510586156431021"><ele>596.6</ele><time>2026-03-31T11:53:03Z</time></trkpt><trkpt lat="42.49638387944561" lon="-1.3510367774060352"><ele>596.2</ele><time>2026-03-31T11:53:04Z</time></trkpt><trkpt lat="42.49652675054385" lon="-1.3509846080462349"><ele>595.8</ele><time>2026-03-31T11:53:08Z</time></trkpt><trkpt lat="42.496598953778324" lon="-1.350943122928758"><ele>595.4</ele><time>2026-03-31T11:53:09Z</time></trkpt><trkpt lat="42.496688652912056" lon="-1.3508859075360506"><ele>595.0</ele><time>2026-03-31T11:53:10Z</time></trkpt><trkpt lat="42.49680077959527" lon="-1.350814386825692"><ele>595.0</ele><time>2026-03-31T11:53:11Z</time></trkpt><trkpt lat="42.49696274269577" lon="-1.350716629740521"><ele>595.0</ele><time>2026-03-31T11:53:12Z</time></trkpt><trkpt lat="42.49709847459189" lon="-1.3506448404324707"><ele>595.0</ele><time>2026-03-31T11:53:13Z</time></trkpt><trkpt lat="42.497214259274344" lon="-1.350589911319948"><ele>595.0</ele><time>2026-03-31T11:53:14Z</time></trkpt><trkpt lat="42.49728827147112" lon="-1.3505580665478967"><ele>590.75</ele><time>2026-03-31T11:53:15Z</time></trkpt><trkpt lat="42.49736174387328" lon="-1.350528060310929"><ele>586.5</ele><time>2026-03-31T11:53:16Z</time></trkpt><trkpt lat="42.49744685621623" lon="-1.350520337475792"><ele>582.25</ele><time>2026-03-31T11:53:17Z</time></trkpt><trkpt lat="42.49757941048647" lon="-1.350511254131161"><ele>578.0</ele><time>2026-03-31T11:53:18Z</time></trkpt><trkpt lat="42.497665392744" lon="-1.3516412635208115"><ele>585.4</ele><time>2026-03-31T11:53:19Z</time></trkpt><trkpt lat="42.4977004041745" lon="-1.351787180257688"><ele>592.8</ele><time>2026-03-31T11:53:20Z</time></trkpt><trkpt lat="42.49772846624036" lon="-1.3519448982092594"><ele>600.2</ele><time>2026-03-31T11:53:21Z</time></trkpt><trkpt lat="42.49774865118944" lon="-1.3520651231435494"><ele>607.6</ele><time>2026-03-31T11:53:22Z</time></trkpt><trkpt lat="42.497772656125605" lon="-1.3521865908513682"><ele>615.0</ele><time>2026-03-31T11:53:23Z</time></trkpt><trkpt lat="42.49779731906323" lon="-1.3522998156145167"><ele>614.0</ele><time>2026-03-31T11:53:24Z</time></trkpt><trkpt lat="42.4978257137285" lon="-1.3524381468518343"><ele>613.0</ele><time>2026-03-31T11:53:25Z</time></trkpt><trkpt lat="42.49785019804504" lon="-1.352554234775601"><ele>612.0</ele><time>2026-03-31T11:53:26Z</time></trkpt><trkpt lat="42.4978942896202" lon="-1.352678852520983"><ele>611.0</ele><time>2026-03-31T11:53:27Z</time></trkpt><trkpt lat="42.49796299286897" lon="-1.3528212371756032"><ele>610.0</ele><time>2026-03-31T11:53:28Z</time></trkpt><trkpt lat="42.498045402910286" lon="-1.3529426215898783"><ele>610.0</ele><time>2026-03-31T11:53:29Z</time></trkpt><trkpt lat="42.49811880901989" lon="-1.3530368259255185"><ele>610.0</ele><time>2026-03-31T11:53:30Z</time></trkpt><trkpt lat="42.49819435938728" lon="-1.3531089720083418"><ele>610.0</ele><time>2026-03-31T11:53:31Z</time></trkpt><trkpt lat="42.4982881398941" lon="-1.3531357527253367"><ele>610.0</ele><time>2026-03-31T11:53:32Z</time></trkpt><trkpt lat="42.49837031901464" lon="-1.35311616620393"><ele>610.0</ele><time>2026-03-31T11:53:33Z</time></trkpt><trkpt lat="42.49846572999781" lon="-1.3530656437941155"><ele>610.0</ele><time>2026-03-31T11:53:34Z</time></trkpt><trkpt lat="42.49858628367944" lon="-1.35298322536118"><ele>610.0</ele><time>2026-03-31T11:53:35Z</time></trkpt><trkpt lat="42.498717231756096" lon="-1.3528850245803736"><ele>610.0</ele><time>2026-03-31T11:53:36Z</time></trkpt><trkpt lat="42.498854162821125" lon="-1.3527848410842378"><ele>610.0</ele><time>2026-03-31T11:53:37Z</time></trkpt><trkpt lat="42.49898343914004" lon="-1.3527028579495946"><ele>610.8</ele><time>2026-03-31T11:53:38Z</time></trkpt><trkpt lat="42.49908690842016" lon="-1.3526390687989986"><ele>611.6</ele><time>2026-03-31T11:53:39Z</time></trkpt><trkpt lat="42.499176796880356" lon="-1.3525412300338182"><ele>612.4</ele><time>2026-03-31T11:53:40Z</time></trkpt><trkpt lat="42.49925234191063" lon="-1.352429438291149"><ele>613.2</ele><time>2026-03-31T11:53:41Z</time></trkpt><trkpt lat="42.49932245077048" lon="-1.352372101774721"><ele>614.0</ele><time>2026-03-31T11:53:42Z</time></trkpt><trkpt lat="42.49940695917709" lon="-1.352382112467161"><ele>614.0</ele><time>2026-03-31T11:53:43Z</time></trkpt><trkpt lat="42.49950802898772" lon="-1.3524181365565748"><ele>614.0</ele><time>2026-03-31T11:53:44Z</time></trkpt><trkpt lat="42.499637473480256" lon="-1.3524755549261738"><ele>614.0</ele><time>2026-03-31T11:53:45Z</time></trkpt><trkpt lat="42.499758510507355" lon="-1.3525575046063008"><ele>614.0</ele><time>2026-03-31T11:53:46Z</time></trkpt><trkpt lat="42.49986952926743" lon="-1.3526498792005428"><ele>614.0</ele><time>2026-03-31T11:53:47Z</time></trkpt><trkpt lat="42.499973588352525" lon="-1.3527227055095816"><ele>614.0</ele><time>2026-03-31T11:53:48Z</time></trkpt><trkpt lat="42.50008467634545" lon="-1.3527575900068338"><ele>614.0</ele><time>2026-03-31T11:53:49Z</time></trkpt><trkpt lat="42.50018701146563" lon="-1.3527875498639588"><ele>614.0</ele><time>2026-03-31T11:53:50Z</time></trkpt><trkpt lat="42.50029134898146" lon="-1.352768195870947"><ele>614.0</ele><time>2026-03-31T11:53:51Z</time></trkpt><trkpt lat="42.50043189087548" lon="-1.3527210878947504"><ele>614.0</ele><time>2026-03-31T11:53:52Z</time></trkpt><trkpt lat="42.500584128805095" lon="-1.352674020396882"><ele>614.0</ele><time>2026-03-31T11:53:53Z</time></trkpt><trkpt lat="42.50072835074926" lon="-1.3526362420609315"><ele>614.0</ele><time>2026-03-31T11:53:54Z</time></trkpt><trkpt lat="42.5008476152874" lon="-1.3525629270513944"><ele>614.0</ele><time>2026-03-31T11:53:55Z</time></trkpt><trkpt lat="42.500963464892585" lon="-1.3524901837698138"><ele>614.0</ele><time>2026-03-31T11:53:56Z</time></trkpt><trkpt lat="42.50107634406676" lon="-1.3524563360697295"><ele>614.0</ele><time>2026-03-31T11:53:57Z</time></trkpt><trkpt lat="42.50117635777968" lon="-1.3524339369414264"><ele>614.0</ele><time>2026-03-31T11:53:58Z</time></trkpt><trkpt lat="42.50124038188818" lon="-1.3524252876807097"><ele>614.0</ele><time>2026-03-31T11:53:59Z</time></trkpt><trkpt lat="42.50134025939358" lon="-1.352481608208821"><ele>614.0</ele><time>2026-03-31T11:54:01Z</time></trkpt><trkpt lat="42.50134154853173" lon="-1.3526327070910258"><ele>614.0</ele><time>2026-03-31T11:54:03Z</time></trkpt><trkpt lat="42.50131297737546" lon="-1.352737876963644"><ele>614.0</ele><time>2026-03-31T11:54:04Z</time></trkpt><trkpt lat="42.501268301165084" lon="-1.3528822826331766"><ele>614.0</ele><time>2026-03-31T11:54:05Z</time></trkpt><trkpt lat="42.50121100943921" lon="-1.3530202087356213"><ele>614.0</ele><time>2026-03-31T11:54:06Z</time></trkpt><trkpt lat="42.50113466171802" lon="-1.3531845963015268"><ele>616.0</ele><time>2026-03-31T11:54:07Z</time></trkpt><trkpt lat="42.50106038403917" lon="-1.3533413853288903"><ele>618.0</ele><time>2026-03-31T11:54:08Z</time></trkpt><trkpt lat="42.50100154987921" lon="-1.3534817409348605"><ele>620.0</ele><time>2026-03-31T11:54:09Z</time></trkpt><trkpt lat="42.50095709789605" lon="-1.3536199665527662"><ele>622.0</ele><time>2026-03-31T11:54:10Z</time></trkpt><trkpt lat="42.50094117299446" lon="-1.3537503242262152"><ele>620.0</ele><time>2026-03-31T11:54:11Z</time></trkpt><trkpt lat="42.50095179743299" lon="-1.3539047679070615"><ele>618.0</ele><time>2026-03-31T11:54:12Z</time></trkpt><trkpt lat="42.50097654145617" lon="-1.3540664755648142"><ele>616.0</ele><time>2026-03-31T11:54:13Z</time></trkpt><trkpt lat="42.50097390151533" lon="-1.3541984673459442"><ele>614.0</ele><time>2026-03-31T11:54:14Z</time></trkpt><trkpt lat="42.50095349341256" lon="-1.3542910575588076"><ele>612.0</ele><time>2026-03-31T11:54:15Z</time></trkpt><trkpt lat="42.50086053527632" lon="-1.3543824109284925"><ele>612.0</ele><time>2026-03-31T11:54:17Z</time></trkpt><trkpt lat="42.50076388967358" lon="-1.3544335683107265"><ele>612.0</ele><time>2026-03-31T11:54:18Z</time></trkpt><trkpt lat="42.50064222521768" lon="-1.3544888903889396"><ele>612.0</ele><time>2026-03-31T11:54:19Z</time></trkpt><trkpt lat="42.50052991059809" lon="-1.3545551834738787"><ele>612.0</ele><time>2026-03-31T11:54:20Z</time></trkpt><trkpt lat="42.5004407003465" lon="-1.3546471088564753"><ele>614.4</ele><time>2026-03-31T11:54:21Z</time></trkpt><trkpt lat="42.50036456200749" lon="-1.3547753121070958"><ele>616.8000000000001</ele><time>2026-03-31T11:54:22Z</time></trkpt><trkpt lat="42.500307843108544" lon="-1.3549062100608489"><ele>619.2</ele><time>2026-03-31T11:54:23Z</time></trkpt><trkpt lat="42.50027563563152" lon="-1.3550226222245818"><ele>621.6</ele><time>2026-03-31T11:54:24Z</time></trkpt><trkpt lat="42.500258730023006" lon="-1.3551313576564608"><ele>624.0</ele><time>2026-03-31T11:54:25Z</time></trkpt><trkpt lat="42.50027013502079" lon="-1.3552221741331443"><ele>624.0</ele><time>2026-03-31T11:54:26Z</time></trkpt><trkpt lat="42.50032587601916" lon="-1.355293133788431"><ele>624.0</ele><time>2026-03-31T11:54:28Z</time></trkpt><trkpt lat="42.50043839782708" lon="-1.3553992818394653"><ele>624.0</ele><time>2026-03-31T11:54:30Z</time></trkpt><trkpt lat="42.500532979508" lon="-1.3554885029542811"><ele>624.0</ele><time>2026-03-31T11:54:31Z</time></trkpt><trkpt lat="42.50063896299475" lon="-1.3555800603185426"><ele>620.4</ele><time>2026-03-31T11:54:32Z</time></trkpt><trkpt lat="42.500756273692566" lon="-1.355645641630463"><ele>616.8</ele><time>2026-03-31T11:54:33Z</time></trkpt><trkpt lat="42.5008580888742" lon="-1.3556953744870401"><ele>613.2</ele><time>2026-03-31T11:54:34Z</time></trkpt><trkpt lat="42.50093747132518" lon="-1.3557529685567704"><ele>609.6</ele><time>2026-03-31T11:54:35Z</time></trkpt><trkpt lat="42.500986755304275" lon="-1.355825831800403"><ele>606.0</ele><time>2026-03-31T11:54:36Z</time></trkpt><trkpt lat="42.50098632162743" lon="-1.3559489880598887"><ele>606.0</ele><time>2026-03-31T11:54:38Z</time></trkpt><trkpt lat="42.500951181908015" lon="-1.3560298244434204"><ele>606.0</ele><time>2026-03-31T11:54:39Z</time></trkpt><trkpt lat="42.50090166296678" lon="-1.3561428787646652"><ele>606.0</ele><time>2026-03-31T11:54:40Z</time></trkpt><trkpt lat="42.50083815477105" lon="-1.3562721841026864"><ele>606.0</ele><time>2026-03-31T11:54:41Z</time></trkpt><trkpt lat="42.500772111629345" lon="-1.3564073099649008"><ele>606.0</ele><time>2026-03-31T11:54:42Z</time></trkpt><trkpt lat="42.500717282563016" lon="-1.3565312865135948"><ele>605.4</ele><time>2026-03-31T11:54:43Z</time></trkpt><trkpt lat="42.500669545927096" lon="-1.3566468396833127"><ele>604.8</ele><time>2026-03-31T11:54:44Z</time></trkpt><trkpt lat="42.50062159732699" lon="-1.3567521414858215"><ele>604.1999999999999</ele><time>2026-03-31T11:54:45Z</time></trkpt><trkpt lat="42.5005616994613" lon="-1.35684424765239"><ele>603.6</ele><time>2026-03-31T11:54:46Z</time></trkpt><trkpt lat="42.50047872070913" lon="-1.3569491905345987"><ele>603.0</ele><time>2026-03-31T11:54:47Z</time></trkpt><trkpt lat="42.500391049004186" lon="-1.3570553443987605"><ele>604.5</ele><time>2026-03-31T11:54:48Z</time></trkpt><trkpt lat="42.5002976516368" lon="-1.3571639788090424"><ele>606.0</ele><time>2026-03-31T11:54:49Z</time></trkpt><trkpt lat="42.50020609999028" lon="-1.357278258706772"><ele>607.5</ele><time>2026-03-31T11:54:50Z</time></trkpt><trkpt lat="42.500111046921006" lon="-1.3574130431439144"><ele>609.0</ele><time>2026-03-31T11:54:51Z</time></trkpt><trkpt lat="42.49999574792246" lon="-1.357539064970065"><ele>609.0</ele><time>2026-03-31T11:54:52Z</time></trkpt><trkpt lat="42.4998835954556" lon="-1.357666519079108"><ele>609.0</ele><time>2026-03-31T11:54:53Z</time></trkpt><trkpt lat="42.49977421322343" lon="-1.3577888252939811"><ele>609.0</ele><time>2026-03-31T11:54:54Z</time></trkpt><trkpt lat="42.499659277329584" lon="-1.3578989584436667"><ele>609.0</ele><time>2026-03-31T11:54:55Z</time></trkpt><trkpt lat="42.499557592920674" lon="-1.3580041424234053"><ele>610.0</ele><time>2026-03-31T11:54:56Z</time></trkpt><trkpt lat="42.499459879728974" lon="-1.358099073593766"><ele>611.0</ele><time>2026-03-31T11:54:57Z</time></trkpt><trkpt lat="42.49936266132298" lon="-1.3581896256809352"><ele>612.0</ele><time>2026-03-31T11:54:58Z</time></trkpt><trkpt lat="42.49926951876428" lon="-1.3582788335871492"><ele>613.0</ele><time>2026-03-31T11:54:59Z</time></trkpt><trkpt lat="42.49919664004987" lon="-1.3583669566363012"><ele>613.0</ele><time>2026-03-31T11:55:00Z</time></trkpt><trkpt lat="42.4991322663663" lon="-1.3584202052377616"><ele>613.0</ele><time>2026-03-31T11:55:01Z</time></trkpt><trkpt lat="42.49906168898037" lon="-1.358532250192892"><ele>613.0</ele><time>2026-03-31T11:55:03Z</time></trkpt><trkpt lat="42.49906162254936" lon="-1.358671331231163"><ele>613.0</ele><time>2026-03-31T11:55:05Z</time></trkpt><trkpt lat="42.49914873343417" lon="-1.3587979862293142"><ele>613.0</ele><time>2026-03-31T11:55:07Z</time></trkpt><trkpt lat="42.49922840496655" lon="-1.3588706167832216"><ele>613.8</ele><time>2026-03-31T11:55:08Z</time></trkpt><trkpt lat="42.49931440537866" lon="-1.3589381390515876"><ele>614.5999999999999</ele><time>2026-03-31T11:55:09Z</time></trkpt><trkpt lat="42.49941716534692" lon="-1.3589820779214312"><ele>615.4000000000001</ele><time>2026-03-31T11:55:10Z</time></trkpt><trkpt lat="42.49952704502378" lon="-1.3590144526312364"><ele>616.2</ele><time>2026-03-31T11:55:11Z</time></trkpt><trkpt lat="42.49963328744436" lon="-1.359051364262632"><ele>617.0</ele><time>2026-03-31T11:55:12Z</time></trkpt><trkpt lat="42.499734993168104" lon="-1.3590715579899764"><ele>617.0</ele><time>2026-03-31T11:55:13Z</time></trkpt><trkpt lat="42.49982917399773" lon="-1.3590680292685737"><ele>617.0</ele><time>2026-03-31T11:55:14Z</time></trkpt><trkpt lat="42.49991736660331" lon="-1.35904639055389"><ele>617.0</ele><time>2026-03-31T11:55:15Z</time></trkpt><trkpt lat="42.500012321240284" lon="-1.3590099925043748"><ele>617.0</ele><time>2026-03-31T11:55:16Z</time></trkpt><trkpt lat="42.500104889523385" lon="-1.3589524683234142"><ele>617.0</ele><time>2026-03-31T11:55:17Z</time></trkpt><trkpt lat="42.50021074762923" lon="-1.3588963950447905"><ele>614.0</ele><time>2026-03-31T11:55:18Z</time></trkpt><trkpt lat="42.50031186473624" lon="-1.358842827196271"><ele>611.0</ele><time>2026-03-31T11:55:19Z</time></trkpt><trkpt lat="42.500426873886056" lon="-1.358783580190323"><ele>608.0</ele><time>2026-03-31T11:55:20Z</time></trkpt><trkpt lat="42.500531525232404" lon="-1.3587394329841223"><ele>605.0</ele><time>2026-03-31T11:55:21Z</time></trkpt><trkpt lat="42.50062828947319" lon="-1.3586827407035833"><ele>602.0</ele><time>2026-03-31T11:55:22Z</time></trkpt><trkpt lat="42.50072642428401" lon="-1.3585959796532905"><ele>602.0</ele><time>2026-03-31T11:55:23Z</time></trkpt><trkpt lat="42.50081684170822" lon="-1.3585060085484142"><ele>602.0</ele><time>2026-03-31T11:55:24Z</time></trkpt><trkpt lat="42.50090752388167" lon="-1.3584032208942076"><ele>602.0</ele><time>2026-03-31T11:55:25Z</time></trkpt><trkpt lat="42.500993812918814" lon="-1.3583049593622216"><ele>602.0</ele><time>2026-03-31T11:55:26Z</time></trkpt><trkpt lat="42.50110596205702" lon="-1.3582103261665495"><ele>602.0</ele><time>2026-03-31T11:55:27Z</time></trkpt><trkpt lat="42.50121129872682" lon="-1.358147474911036"><ele>602.0</ele><time>2026-03-31T11:55:28Z</time></trkpt><trkpt lat="42.501303743419065" lon="-1.3580504751797153"><ele>602.0</ele><time>2026-03-31T11:55:29Z</time></trkpt><trkpt lat="42.50137760116214" lon="-1.3579220629642668"><ele>602.0</ele><time>2026-03-31T11:55:30Z</time></trkpt><trkpt lat="42.50145443822341" lon="-1.3577792765539025"><ele>601.6</ele><time>2026-03-31T11:55:31Z</time></trkpt><trkpt lat="42.50152027765943" lon="-1.3576366161843343"><ele>601.2</ele><time>2026-03-31T11:55:32Z</time></trkpt><trkpt lat="42.501564413055746" lon="-1.3575021861801424"><ele>600.8</ele><time>2026-03-31T11:55:33Z</time></trkpt><trkpt lat="42.50161584225614" lon="-1.3573722336534322"><ele>600.4</ele><time>2026-03-31T11:55:34Z</time></trkpt><trkpt lat="42.501666329582115" lon="-1.3572485420308695"><ele>600.0</ele><time>2026-03-31T11:55:35Z</time></trkpt><trkpt lat="42.501726264413264" lon="-1.3571494780539188"><ele>600.0</ele><time>2026-03-31T11:55:36Z</time></trkpt><trkpt lat="42.50181448655467" lon="-1.3570779353844586"><ele>600.0</ele><time>2026-03-31T11:55:37Z</time></trkpt><trkpt lat="42.501930796935085" lon="-1.3570228825037225"><ele>600.0</ele><time>2026-03-31T11:55:38Z</time></trkpt><trkpt lat="42.502059636031625" lon="-1.3569636114955619"><ele>600.0</ele><time>2026-03-31T11:55:39Z</time></trkpt><trkpt lat="42.502162151684246" lon="-1.356928072051785"><ele>600.0</ele><time>2026-03-31T11:55:40Z</time></trkpt><trkpt lat="42.50226796102788" lon="-1.3569217509700273"><ele>600.0</ele><time>2026-03-31T11:55:41Z</time></trkpt><trkpt lat="42.502361868491406" lon="-1.3569026454587165"><ele>600.0</ele><time>2026-03-31T11:55:42Z</time></trkpt><trkpt lat="42.50243728133696" lon="-1.356855624984049"><ele>600.0</ele><time>2026-03-31T11:55:43Z</time></trkpt><trkpt lat="42.502486358571375" lon="-1.3567886221014647"><ele>600.0</ele><time>2026-03-31T11:55:44Z</time></trkpt><trkpt lat="42.50248943897979" lon="-1.3566137713141688"><ele>600.0</ele><time>2026-03-31T11:55:46Z</time></trkpt><trkpt lat="42.50245900798691" lon="-1.3564690430571906"><ele>600.0</ele><time>2026-03-31T11:55:47Z</time></trkpt><trkpt lat="42.502418511323626" lon="-1.3563275714794047"><ele>600.0</ele><time>2026-03-31T11:55:48Z</time></trkpt><trkpt lat="42.50239246894485" lon="-1.3561979229163006"><ele>600.0</ele><time>2026-03-31T11:55:49Z</time></trkpt><trkpt lat="42.5024081923232" lon="-1.3560512860156488"><ele>600.0</ele><time>2026-03-31T11:55:50Z</time></trkpt><trkpt lat="42.50243449529381" lon="-1.355877471860354"><ele>597.75</ele><time>2026-03-31T11:55:51Z</time></trkpt><trkpt lat="42.50245881470307" lon="-1.355720257123037"><ele>595.5</ele><time>2026-03-31T11:55:52Z</time></trkpt><trkpt lat="42.502482902879805" lon="-1.3555637110919132"><ele>593.25</ele><time>2026-03-31T11:55:53Z</time></trkpt><trkpt lat="42.502506219247934" lon="-1.3553994283840194"><ele>591.0</ele><time>2026-03-31T11:55:54Z</time></trkpt><trkpt lat="42.502539217374476" lon="-1.3552718301355442"><ele>588.6666666666666</ele><time>2026-03-31T11:55:55Z</time></trkpt><trkpt lat="42.5025797723994" lon="-1.3551786803070867"><ele>586.3333333333334</ele><time>2026-03-31T11:55:56Z</time></trkpt><trkpt lat="42.50262390174236" lon="-1.355076985332676"><ele>584.0</ele><time>2026-03-31T11:55:57Z</time></trkpt><trkpt lat="42.502688683341034" lon="-1.3550192222205795"><ele>581.6666666666667</ele><time>2026-03-31T11:55:58Z</time></trkpt><trkpt lat="42.50276026500861" lon="-1.3550004223007426"><ele>579.3333333333334</ele><time>2026-03-31T11:55:59Z</time></trkpt><trkpt lat="42.50285230675597" lon="-1.3550155623585525"><ele>577.0</ele><time>2026-03-31T11:56:00Z</time></trkpt><trkpt lat="42.50297027251745" lon="-1.355074911225289"><ele>576.5</ele><time>2026-03-31T11:56:01Z</time></trkpt><trkpt lat="42.503086296245534" lon="-1.3551586418662906"><ele>576.0</ele><time>2026-03-31T11:56:02Z</time></trkpt><trkpt lat="42.50321849021535" lon="-1.3552494332285672"><ele>575.5</ele><time>2026-03-31T11:56:03Z</time></trkpt><trkpt lat="42.503355253135084" lon="-1.3553148143132854"><ele>575.0</ele><time>2026-03-31T11:56:04Z</time></trkpt><trkpt lat="42.50347691334535" lon="-1.3553483121372274"><ele>575.0</ele><time>2026-03-31T11:56:05Z</time></trkpt><trkpt lat="42.50357913431738" lon="-1.3554169630319666"><ele>575.0</ele><time>2026-03-31T11:56:06Z</time></trkpt><trkpt lat="42.5036815495823" lon="-1.3555176616488884"><ele>575.0</ele><time>2026-03-31T11:56:07Z</time></trkpt><trkpt lat="42.50378114739038" lon="-1.3556035327852347"><ele>575.0</ele><time>2026-03-31T11:56:08Z</time></trkpt><trkpt lat="42.50387189669008" lon="-1.3556632327156757"><ele>576.2</ele><time>2026-03-31T11:56:09Z</time></trkpt><trkpt lat="42.503946502118424" lon="-1.3557224634678087"><ele>577.4</ele><time>2026-03-31T11:56:10Z</time></trkpt><trkpt lat="42.50403679620572" lon="-1.3557162726246632"><ele>578.6</ele><time>2026-03-31T11:56:12Z</time></trkpt><trkpt lat="42.50412569178306" lon="-1.3556508911472938"><ele>579.8</ele><time>2026-03-31T12:00:20Z</time></trkpt><trkpt lat="42.50419123147226" lon="-1.3555261752259875"><ele>581.0</ele><time>2026-03-31T12:00:22Z</time></trkpt><trkpt lat="42.50422934153548" lon="-1.3553772242776352"><ele>578.6666666666666</ele><time>2026-03-31T12:00:24Z</time></trkpt><trkpt lat="42.50422959388344" lon="-1.3552861347939555"><ele>576.3333333333333</ele><time>2026-03-31T12:00:25Z</time></trkpt><trkpt lat="42.50421909835149" lon="-1.3551856656650059"><ele>574.0</ele><time>2026-03-31T12:00:26Z</time></trkpt><trkpt lat="42.504212104722384" lon="-1.3550771621941304"><ele>571.6666666666666</ele><time>2026-03-31T12:00:27Z</time></trkpt><trkpt lat="42.50421031359019" lon="-1.3549779768573997"><ele>569.3333333333334</ele><time>2026-03-31T12:00:28Z</time></trkpt><trkpt lat="42.504225313866876" lon="-1.3548861266729386"><ele>567.0</ele><time>2026-03-31T12:00:29Z</time></trkpt><trkpt lat="42.50428936128561" lon="-1.3547443528223906"><ele>567.5</ele><time>2026-03-31T12:00:31Z</time></trkpt><trkpt lat="42.50434450300737" lon="-1.3546868121384676"><ele>568.0</ele><time>2026-03-31T12:00:32Z</time></trkpt><trkpt lat="42.50441295546969" lon="-1.3546454749208339"><ele>568.5</ele><time>2026-03-31T12:00:33Z</time></trkpt><trkpt lat="42.50449467262696" lon="-1.3546212625610383"><ele>569.0</ele><time>2026-03-31T12:00:34Z</time></trkpt><trkpt lat="42.50457307723282" lon="-1.354595098852084"><ele>569.5</ele><time>2026-03-31T12:00:35Z</time></trkpt><trkpt lat="42.504652293180584" lon="-1.3545574288162852"><ele>570.0</ele><time>2026-03-31T12:00:36Z</time></trkpt><trkpt lat="42.50473162971204" lon="-1.3545131926416485"><ele>570.0</ele><time>2026-03-31T12:00:37Z</time></trkpt><trkpt lat="42.50473939355539" lon="-1.3544123967205726"><ele>570.0</ele><time>2026-03-31T12:00:38Z</time></trkpt><trkpt lat="42.50479503910914" lon="-1.3543298166152915"><ele>570.0</ele><time>2026-03-31T12:00:39Z</time></trkpt><trkpt lat="42.50487692829959" lon="-1.354227144467374"><ele>570.0</ele><time>2026-03-31T12:00:40Z</time></trkpt><trkpt lat="42.50493427774136" lon="-1.354121920282923"><ele>570.0</ele><time>2026-03-31T12:00:41Z</time></trkpt><trkpt lat="42.50497554482712" lon="-1.354019849182462"><ele>570.0</ele><time>2026-03-31T12:00:42Z</time></trkpt><trkpt lat="42.505017868820936" lon="-1.3539449438602214"><ele>570.0</ele><time>2026-03-31T12:00:43Z</time></trkpt><trkpt lat="42.50508499796568" lon="-1.3539000740732046"><ele>570.0</ele><time>2026-03-31T12:00:44Z</time></trkpt><trkpt lat="42.50516695283083" lon="-1.3538703838636827"><ele>570.0</ele><time>2026-03-31T12:00:45Z</time></trkpt><trkpt lat="42.50525862793121" lon="-1.353861143034405"><ele>570.0</ele><time>2026-03-31T12:00:46Z</time></trkpt><trkpt lat="42.505357785912516" lon="-1.3538561376561442"><ele>570.0</ele><time>2026-03-31T12:00:47Z</time></trkpt><trkpt lat="42.50546031361239" lon="-1.3538519144765273"><ele>571.6</ele><time>2026-03-31T12:00:48Z</time></trkpt><trkpt lat="42.50555949965396" lon="-1.353854064531968"><ele>573.2</ele><time>2026-03-31T12:00:49Z</time></trkpt><trkpt lat="42.505657146192455" lon="-1.3538694166479084"><ele>574.8</ele><time>2026-03-31T12:00:50Z</time></trkpt><trkpt lat="42.50574687001016" lon="-1.3538878483401267"><ele>576.4</ele><time>2026-03-31T12:00:51Z</time></trkpt><trkpt lat="42.505835654572806" lon="-1.3539159987081095"><ele>578.0</ele><time>2026-03-31T12:00:52Z</time></trkpt><trkpt lat="42.50592809395053" lon="-1.3539614203328958"><ele>578.0</ele><time>2026-03-31T12:00:53Z</time></trkpt><trkpt lat="42.50601926774737" lon="-1.3540303011964738"><ele>578.0</ele><time>2026-03-31T12:00:54Z</time></trkpt><trkpt lat="42.50610454066515" lon="-1.3541263414495492"><ele>578.0</ele><time>2026-03-31T12:00:55Z</time></trkpt><trkpt lat="42.506184346332404" lon="-1.3542397190076265"><ele>578.0</ele><time>2026-03-31T12:00:56Z</time></trkpt><trkpt lat="42.50626552383074" lon="-1.3543624061107806"><ele>575.5</ele><time>2026-03-31T12:00:57Z</time></trkpt><trkpt lat="42.50635891149068" lon="-1.354479654301619"><ele>573.0</ele><time>2026-03-31T12:00:58Z</time></trkpt><trkpt lat="42.50645806828593" lon="-1.3545920941764173"><ele>570.5</ele><time>2026-03-31T12:00:59Z</time></trkpt><trkpt lat="42.50656264254432" lon="-1.3546800405024908"><ele>568.0</ele><time>2026-03-31T12:01:00Z</time></trkpt><trkpt lat="42.506671189490525" lon="-1.3547586228072954"><ele>573.0</ele><time>2026-03-31T12:01:01Z</time></trkpt><trkpt lat="42.50677661097228" lon="-1.3548324574543014"><ele>578.0</ele><time>2026-03-31T12:01:02Z</time></trkpt><trkpt lat="42.50687861464813" lon="-1.354917478579201"><ele>583.0</ele><time>2026-03-31T12:01:03Z</time></trkpt><trkpt lat="42.50697445771576" lon="-1.3550181329953896"><ele>588.0</ele><time>2026-03-31T12:01:04Z</time></trkpt><trkpt lat="42.50706273270191" lon="-1.3551253559084102"><ele>585.4</ele><time>2026-03-31T12:01:05Z</time></trkpt><trkpt lat="42.50715083076985" lon="-1.3552281475039465"><ele>582.8</ele><time>2026-03-31T12:01:06Z</time></trkpt><trkpt lat="42.50724151382749" lon="-1.3552996159417843"><ele>580.2</ele><time>2026-03-31T12:01:07Z</time></trkpt><trkpt lat="42.50734255577134" lon="-1.35535396678213"><ele>577.6</ele><time>2026-03-31T12:01:08Z</time></trkpt><trkpt lat="42.50744037975753" lon="-1.3553857986407174"><ele>575.0</ele><time>2026-03-31T12:01:09Z</time></trkpt><trkpt lat="42.50752387845199" lon="-1.3554048868519144"><ele>575.0</ele><time>2026-03-31T12:01:10Z</time></trkpt><trkpt lat="42.507585273873126" lon="-1.3554288717859826"><ele>575.0</ele><time>2026-03-31T12:01:11Z</time></trkpt><trkpt lat="42.507640948584346" lon="-1.355374726831416"><ele>575.0</ele><time>2026-03-31T12:01:13Z</time></trkpt><trkpt lat="42.50764979010986" lon="-1.3552422207141255"><ele>575.0</ele><time>2026-03-31T12:01:15Z</time></trkpt><trkpt lat="42.50762849907992" lon="-1.3550789339035225"><ele>575.0</ele><time>2026-03-31T12:01:17Z</time></trkpt><trkpt lat="42.50756896143131" lon="-1.354944451711795"><ele>575.0</ele><time>2026-03-31T12:01:19Z</time></trkpt><trkpt lat="42.507523157555774" lon="-1.3548755598500424"><ele>575.0</ele><time>2026-03-31T12:01:20Z</time></trkpt><trkpt lat="42.50746507939395" lon="-1.3548017256166383"><ele>575.0</ele><time>2026-03-31T12:01:21Z</time></trkpt><trkpt lat="42.507391414999844" lon="-1.354678476719119"><ele>575.0</ele><time>2026-03-31T12:01:23Z</time></trkpt><trkpt lat="42.507336543059445" lon="-1.3546137295607155"><ele>575.0</ele><time>2026-03-31T12:01:24Z</time></trkpt><trkpt lat="42.50725113206455" lon="-1.3544716883285866"><ele>573.6</ele><time>2026-03-31T12:01:26Z</time></trkpt><trkpt lat="42.50719493424314" lon="-1.354392092277605"><ele>572.2</ele><time>2026-03-31T12:01:27Z</time></trkpt><trkpt lat="42.5071259465107" lon="-1.3542579814904154"><ele>570.8</ele><time>2026-03-31T12:01:28Z</time></trkpt><trkpt lat="42.50705439889049" lon="-1.3541437582852072"><ele>569.4</ele><time>2026-03-31T12:01:29Z</time></trkpt><trkpt lat="42.506988169120724" lon="-1.3540320153261838"><ele>568.0</ele><time>2026-03-31T12:01:30Z</time></trkpt><trkpt lat="42.50692308394277" lon="-1.3539214025723652"><ele>564.4</ele><time>2026-03-31T12:01:31Z</time></trkpt><trkpt lat="42.50685669351809" lon="-1.3538249252609877"><ele>560.8</ele><time>2026-03-31T12:01:32Z</time></trkpt><trkpt lat="42.50678258437478" lon="-1.353741799987684"><ele>557.2</ele><time>2026-03-31T12:01:33Z</time></trkpt><trkpt lat="42.506712570721575" lon="-1.353641836770612"><ele>553.6</ele><time>2026-03-31T12:01:34Z</time></trkpt><trkpt lat="42.50666903462484" lon="-1.3535478288283287"><ele>550.0</ele><time>2026-03-31T12:01:35Z</time></trkpt><trkpt lat="42.50662089910774" lon="-1.353444185792593"><ele>550.0</ele><time>2026-03-31T12:01:36Z</time></trkpt><trkpt lat="42.50654557286662" lon="-1.3533299031785175"><ele>550.0</ele><time>2026-03-31T12:01:37Z</time></trkpt><trkpt lat="42.50647308703724" lon="-1.3532248212642914"><ele>550.0</ele><time>2026-03-31T12:01:38Z</time></trkpt><trkpt lat="42.50641222135112" lon="-1.3531017373732752"><ele>550.0</ele><time>2026-03-31T12:01:39Z</time></trkpt><trkpt lat="42.50635818305186" lon="-1.3529599100407026"><ele>550.0</ele><time>2026-03-31T12:01:40Z</time></trkpt><trkpt lat="42.50629760822219" lon="-1.3528305221949106"><ele>548.4</ele><time>2026-03-31T12:01:41Z</time></trkpt><trkpt lat="42.50624060930291" lon="-1.3527017408951212"><ele>546.8</ele><time>2026-03-31T12:01:42Z</time></trkpt><trkpt lat="42.50618514804222" lon="-1.35258042739701"><ele>545.2</ele><time>2026-03-31T12:01:43Z</time></trkpt><trkpt lat="42.50614391654976" lon="-1.3524917026573988"><ele>543.6</ele><time>2026-03-31T12:01:44Z</time></trkpt><trkpt lat="42.50610509326714" lon="-1.3524231760436738"><ele>542.0</ele><time>2026-03-31T12:01:45Z</time></trkpt><trkpt lat="42.5060200069459" lon="-1.3523272576350376"><ele>542.0</ele><time>2026-03-31T12:01:47Z</time></trkpt><trkpt lat="42.505931137715926" lon="-1.3522611825051503"><ele>542.0</ele><time>2026-03-31T12:01:49Z</time></trkpt><trkpt lat="42.50581667857932" lon="-1.3522271928576037"><ele>542.0</ele><time>2026-03-31T12:01:51Z</time></trkpt><trkpt lat="42.50569217577764" lon="-1.352174594311386"><ele>542.0</ele><time>2026-03-31T12:01:53Z</time></trkpt><trkpt lat="42.50562701675946" lon="-1.3521229636639909"><ele>542.0</ele><time>2026-03-31T12:01:54Z</time></trkpt><trkpt lat="42.50556080956713" lon="-1.3520612829972876"><ele>540.2</ele><time>2026-03-31T12:01:55Z</time></trkpt><trkpt lat="42.5054980347188" lon="-1.3520119590728252"><ele>538.4000000000001</ele><time>2026-03-31T12:01:56Z</time></trkpt><trkpt lat="42.50540188917007" lon="-1.3519477239843898"><ele>536.5999999999999</ele><time>2026-03-31T12:01:58Z</time></trkpt><trkpt lat="42.50536866611744" lon="-1.3518530342809343"><ele>534.8</ele><time>2026-03-31T12:02:02Z</time></trkpt><trkpt lat="42.50545172207314" lon="-1.351750797574868"><ele>533.0</ele><time>2026-03-31T12:02:04Z</time></trkpt><trkpt lat="42.50554476599768" lon="-1.3517034010693498"><ele>532.6</ele><time>2026-03-31T12:02:05Z</time></trkpt><trkpt lat="42.50563223548546" lon="-1.3516621271444622"><ele>532.1999999999999</ele><time>2026-03-31T12:02:06Z</time></trkpt><trkpt lat="42.505728151089656" lon="-1.3516061909278263"><ele>531.8</ele><time>2026-03-31T12:02:07Z</time></trkpt><trkpt lat="42.505833288565725" lon="-1.351538947478092"><ele>531.4</ele><time>2026-03-31T12:02:08Z</time></trkpt><trkpt lat="42.505952397083206" lon="-1.3514756954583695"><ele>531.0</ele><time>2026-03-31T12:02:09Z</time></trkpt><trkpt lat="42.50608752915276" lon="-1.3514096873433743"><ele>529.6666666666666</ele><time>2026-03-31T12:02:10Z</time></trkpt><trkpt lat="42.506230009422296" lon="-1.351343984997543"><ele>528.3333333333333</ele><time>2026-03-31T12:02:11Z</time></trkpt><trkpt lat="42.506380765442664" lon="-1.3512860249399181"><ele>527.0</ele><time>2026-03-31T12:02:12Z</time></trkpt><trkpt lat="42.50653050734763" lon="-1.3512339383465528"><ele>526.3333333333333</ele><time>2026-03-31T12:02:13Z</time></trkpt><trkpt lat="42.50667955400178" lon="-1.351181223781037"><ele>525.6666666666666</ele><time>2026-03-31T12:02:14Z</time></trkpt><trkpt lat="42.50682501492052" lon="-1.3511308106234907"><ele>525.0</ele><time>2026-03-31T12:02:15Z</time></trkpt><trkpt lat="42.50697873665302" lon="-1.351076390811184"><ele>523.6666666666666</ele><time>2026-03-31T12:02:16Z</time></trkpt><trkpt lat="42.50713583633462" lon="-1.3510273940670188"><ele>522.3333333333333</ele><time>2026-03-31T12:02:17Z</time></trkpt><trkpt lat="42.507295867798625" lon="-1.3509750487078445"><ele>521.0</ele><time>2026-03-31T12:02:18Z</time></trkpt><trkpt lat="42.507457466888184" lon="-1.3509227061721052"><ele>521.0</ele><time>2026-03-31T12:02:19Z</time></trkpt><trkpt lat="42.50762335469009" lon="-1.350879298960052"><ele>521.0</ele><time>2026-03-31T12:02:20Z</time></trkpt><trkpt lat="42.5077875417576" lon="-1.3508400887918384"><ele>521.0</ele><time>2026-03-31T12:02:21Z</time></trkpt><trkpt lat="42.50795129253291" lon="-1.3508038858233988"><ele>520.0</ele><time>2026-03-31T12:02:22Z</time></trkpt><trkpt lat="42.508117603995224" lon="-1.3507658691954028"><ele>519.0</ele><time>2026-03-31T12:02:23Z</time></trkpt><trkpt lat="42.508281433634785" lon="-1.3507190512227507"><ele>518.0</ele><time>2026-03-31T12:02:24Z</time></trkpt><trkpt lat="42.50844164324648" lon="-1.3506440670133335"><ele>517.0</ele><time>2026-03-31T12:02:25Z</time></trkpt><trkpt lat="42.5085935524542" lon="-1.3505333913716795"><ele>516.0</ele><time>2026-03-31T12:02:26Z</time></trkpt><trkpt lat="42.50873206533774" lon="-1.350396301795916"><ele>515.0</ele><time>2026-03-31T12:02:27Z</time></trkpt><trkpt lat="42.50886616052105" lon="-1.3502497217538358"><ele>513.6666666666666</ele><time>2026-03-31T12:02:28Z</time></trkpt><trkpt lat="42.509008549900514" lon="-1.3501182375698424"><ele>512.3333333333334</ele><time>2026-03-31T12:02:29Z</time></trkpt><trkpt lat="42.50916941195053" lon="-1.3500046804641308"><ele>511.0</ele><time>2026-03-31T12:02:30Z</time></trkpt><trkpt lat="42.5093343253439" lon="-1.3499072590239751"><ele>511.0</ele><time>2026-03-31T12:02:31Z</time></trkpt><trkpt lat="42.509504420481576" lon="-1.3498174589635705"><ele>511.0</ele><time>2026-03-31T12:02:32Z</time></trkpt><trkpt lat="42.50967203069857" lon="-1.3497318188850818"><ele>511.0</ele><time>2026-03-31T12:02:33Z</time></trkpt><trkpt lat="42.509844494137944" lon="-1.349649731520302"><ele>509.0</ele><time>2026-03-31T12:02:34Z</time></trkpt><trkpt lat="42.51002033254213" lon="-1.349575433685432"><ele>507.0</ele><time>2026-03-31T12:02:35Z</time></trkpt><trkpt lat="42.5101944913932" lon="-1.3495215712927857"><ele>505.0</ele><time>2026-03-31T12:02:36Z</time></trkpt><trkpt lat="42.51037774179314" lon="-1.349490388053536"><ele>505.6666666666667</ele><time>2026-03-31T12:02:37Z</time></trkpt><trkpt lat="42.51054687433108" lon="-1.3494646952210239"><ele>506.33333333333337</ele><time>2026-03-31T12:02:38Z</time></trkpt><trkpt lat="42.51070345567269" lon="-1.3494246393399136"><ele>507.0</ele><time>2026-03-31T12:02:39Z</time></trkpt><trkpt lat="42.51084611874568" lon="-1.349332946686002"><ele>507.0</ele><time>2026-03-31T12:02:40Z</time></trkpt><trkpt lat="42.51098937656878" lon="-1.3492415253636947"><ele>507.0</ele><time>2026-03-31T12:02:41Z</time></trkpt><trkpt lat="42.51109864772501" lon="-1.3490682935004403"><ele>507.0</ele><time>2026-03-31T12:02:42Z</time></trkpt><trkpt lat="42.511203317944286" lon="-1.3488941149150684"><ele>506.0</ele><time>2026-03-31T12:02:43Z</time></trkpt><trkpt lat="42.51130253469733" lon="-1.3487126065589907"><ele>505.0</ele><time>2026-03-31T12:02:44Z</time></trkpt><trkpt lat="42.5113831414705" lon="-1.3485161265885144"><ele>504.0</ele><time>2026-03-31T12:02:45Z</time></trkpt><trkpt lat="42.51149709127628" lon="-1.3483523967328186"><ele>504.0</ele><time>2026-03-31T12:02:46Z</time></trkpt><trkpt lat="42.511648000542735" lon="-1.3482345290997346"><ele>504.0</ele><time>2026-03-31T12:02:47Z</time></trkpt><trkpt lat="42.511816444879884" lon="-1.348159096879982"><ele>504.0</ele><time>2026-03-31T12:02:48Z</time></trkpt><trkpt lat="42.51198961294228" lon="-1.348116500986933"><ele>504.0</ele><time>2026-03-31T12:02:49Z</time></trkpt><trkpt lat="42.512175131166735" lon="-1.3481085129652324"><ele>504.0</ele><time>2026-03-31T12:02:50Z</time></trkpt><trkpt lat="42.51237490535928" lon="-1.3481357580455513"><ele>504.0</ele><time>2026-03-31T12:02:51Z</time></trkpt><trkpt lat="42.512581462306635" lon="-1.3481678298567545"><ele>504.0</ele><time>2026-03-31T12:02:52Z</time></trkpt><trkpt lat="42.51277770435936" lon="-1.34819912619974"><ele>504.0</ele><time>2026-03-31T12:02:53Z</time></trkpt><trkpt lat="42.51295124943198" lon="-1.3482173905588877"><ele>504.0</ele><time>2026-03-31T12:02:54Z</time></trkpt><trkpt lat="42.51311611542902" lon="-1.3482415182906962"><ele>502.66666666666663</ele><time>2026-03-31T12:02:55Z</time></trkpt><trkpt lat="42.5132653379633" lon="-1.3482838671165114"><ele>501.3333333333333</ele><time>2026-03-31T12:02:56Z</time></trkpt><trkpt lat="42.513412462676165" lon="-1.348372154927889"><ele>500.0</ele><time>2026-03-31T12:02:57Z</time></trkpt><trkpt lat="42.51354295019637" lon="-1.3484861775162866"><ele>500.0</ele><time>2026-03-31T12:02:58Z</time></trkpt><trkpt lat="42.51365818940275" lon="-1.3486102464020673"><ele>500.0</ele><time>2026-03-31T12:02:59Z</time></trkpt><trkpt lat="42.51376312612729" lon="-1.348758613217558"><ele>500.0</ele><time>2026-03-31T12:03:00Z</time></trkpt><trkpt lat="42.51385518183283" lon="-1.3489365366694845"><ele>498.3333333333333</ele><time>2026-03-31T12:03:01Z</time></trkpt><trkpt lat="42.513925759485964" lon="-1.34914947386559"><ele>496.66666666666663</ele><time>2026-03-31T12:03:02Z</time></trkpt><trkpt lat="42.51397150863468" lon="-1.3493974197487946"><ele>495.0</ele><time>2026-03-31T12:03:03Z</time></trkpt><trkpt lat="42.514026377664045" lon="-1.3496704846244556"><ele>495.0</ele><time>2026-03-31T12:03:04Z</time></trkpt><trkpt lat="42.514093277863" lon="-1.349945320016225"><ele>495.0</ele><time>2026-03-31T12:03:05Z</time></trkpt><trkpt lat="42.51415875590362" lon="-1.3502156890953436"><ele>495.0</ele><time>2026-03-31T12:03:06Z</time></trkpt><trkpt lat="42.51422218119231" lon="-1.3504944238918728"><ele>494.66666666666663</ele><time>2026-03-31T12:03:07Z</time></trkpt><trkpt lat="42.514284261779544" lon="-1.3507798709671308"><ele>494.3333333333333</ele><time>2026-03-31T12:03:08Z</time></trkpt><trkpt lat="42.514347157609315" lon="-1.351056292678938"><ele>494.0</ele><time>2026-03-31T12:03:09Z</time></trkpt><trkpt lat="42.51439073247194" lon="-1.3513242719913894"><ele>493.3333333333333</ele><time>2026-03-31T12:03:10Z</time></trkpt><trkpt lat="42.51441198392304" lon="-1.3516190634128218"><ele>492.66666666666663</ele><time>2026-03-31T12:03:11Z</time></trkpt><trkpt lat="42.51440808182179" lon="-1.351913808785479"><ele>492.0</ele><time>2026-03-31T12:03:12Z</time></trkpt><trkpt lat="42.514417312013606" lon="-1.35220822339913"><ele>491.66666666666663</ele><time>2026-03-31T12:03:13Z</time></trkpt><trkpt lat="42.5144397867725" lon="-1.3524976919999268"><ele>491.3333333333333</ele><time>2026-03-31T12:03:14Z</time></trkpt><trkpt lat="42.51445854847419" lon="-1.3527792125692832"><ele>491.0</ele><time>2026-03-31T12:03:15Z</time></trkpt><trkpt lat="42.51447284415843" lon="-1.3530620818276662"><ele>490.3333333333333</ele><time>2026-03-31T12:03:16Z</time></trkpt><trkpt lat="42.51450057066635" lon="-1.3533286272863967"><ele>489.66666666666663</ele><time>2026-03-31T12:03:17Z</time></trkpt><trkpt lat="42.5145624593276" lon="-1.3535761414720402"><ele>489.0</ele><time>2026-03-31T12:03:18Z</time></trkpt><trkpt lat="42.51467363916167" lon="-1.3538011250223891"><ele>484.66666666666663</ele><time>2026-03-31T12:03:19Z</time></trkpt><trkpt lat="42.51479178173154" lon="-1.3540163032255486"><ele>480.3333333333333</ele><time>2026-03-31T12:03:20Z</time></trkpt><trkpt lat="42.51490594689694" lon="-1.35423349522688"><ele>476.0</ele><time>2026-03-31T12:03:21Z</time></trkpt><trkpt lat="42.515022666269296" lon="-1.3544280840996854"><ele>476.0</ele><time>2026-03-31T12:03:22Z</time></trkpt><trkpt lat="42.51511515049505" lon="-1.354660681981003"><ele>476.0</ele><time>2026-03-31T12:03:23Z</time></trkpt><trkpt lat="42.515170026507626" lon="-1.3549139080499535"><ele>476.0</ele><time>2026-03-31T12:03:24Z</time></trkpt><trkpt lat="42.515185996013855" lon="-1.3551803622768814"><ele>476.66666666666663</ele><time>2026-03-31T12:03:25Z</time></trkpt><trkpt lat="42.51517336636627" lon="-1.355458771720787"><ele>477.33333333333337</ele><time>2026-03-31T12:03:26Z</time></trkpt><trkpt lat="42.51517125995249" lon="-1.3557118897972609"><ele>478.0</ele><time>2026-03-31T12:03:27Z</time></trkpt><trkpt lat="42.51512714353004" lon="-1.355937418525461"><ele>477.0</ele><time>2026-03-31T12:03:28Z</time></trkpt><trkpt lat="42.51513879213353" lon="-1.3561408756184241"><ele>476.0</ele><time>2026-03-31T12:03:29Z</time></trkpt><trkpt lat="42.515192853131765" lon="-1.3563114760742627"><ele>475.0</ele><time>2026-03-31T12:03:30Z</time></trkpt><trkpt lat="42.515257882789236" lon="-1.3564925921338886"><ele>474.0</ele><time>2026-03-31T12:03:31Z</time></trkpt><trkpt lat="42.51531071234033" lon="-1.3566673581594328"><ele>472.75</ele><time>2026-03-31T12:03:32Z</time></trkpt><trkpt lat="42.51534140138432" lon="-1.3568385977203528"><ele>471.5</ele><time>2026-03-31T12:03:33Z</time></trkpt><trkpt lat="42.51530408662505" lon="-1.3570004274465592"><ele>470.25</ele><time>2026-03-31T12:03:34Z</time></trkpt><trkpt lat="42.515211141736714" lon="-1.357145396579057"><ele>469.0</ele><time>2026-03-31T12:03:35Z</time></trkpt><trkpt lat="42.515083196003445" lon="-1.3572738674848492"><ele>465.6666666666667</ele><time>2026-03-31T12:03:36Z</time></trkpt><trkpt lat="42.51494161734791" lon="-1.3574239573568545"><ele>462.33333333333337</ele><time>2026-03-31T12:03:37Z</time></trkpt><trkpt lat="42.51484654048682" lon="-1.3575777389170063"><ele>459.0</ele><time>2026-03-31T12:03:38Z</time></trkpt><trkpt lat="42.51476688193418" lon="-1.357720062079218"><ele>459.0</ele><time>2026-03-31T12:03:39Z</time></trkpt><trkpt lat="42.5147166200118" lon="-1.3578690565388123"><ele>459.0</ele><time>2026-03-31T12:03:40Z</time></trkpt><trkpt lat="42.51469914100883" lon="-1.3580191931041627"><ele>459.0</ele><time>2026-03-31T12:03:41Z</time></trkpt><trkpt lat="42.51471146445391" lon="-1.3581621341181538"><ele>459.0</ele><time>2026-03-31T12:03:42Z</time></trkpt><trkpt lat="42.51478103278716" lon="-1.3582528480694902"><ele>459.0</ele><time>2026-03-31T12:03:43Z</time></trkpt><trkpt lat="42.51487647412057" lon="-1.3583013262310466"><ele>460.0</ele><time>2026-03-31T12:03:44Z</time></trkpt><trkpt lat="42.5150070279512" lon="-1.358247439312365"><ele>461.0</ele><time>2026-03-31T12:03:45Z</time></trkpt><trkpt lat="42.51516245072756" lon="-1.3582199508963086"><ele>462.0</ele><time>2026-03-31T12:03:46Z</time></trkpt><trkpt lat="42.51533530352863" lon="-1.3581561100025366"><ele>460.33333333333337</ele><time>2026-03-31T12:03:47Z</time></trkpt><trkpt lat="42.51551160776274" lon="-1.358097680724519"><ele>458.6666666666667</ele><time>2026-03-31T12:03:48Z</time></trkpt><trkpt lat="42.51567535943689" lon="-1.3580521464314668"><ele>457.0</ele><time>2026-03-31T12:03:49Z</time></trkpt><trkpt lat="42.51582674251037" lon="-1.358009080349982"><ele>455.33333333333337</ele><time>2026-03-31T12:03:50Z</time></trkpt><trkpt lat="42.515976558638116" lon="-1.357987010257842"><ele>453.66666666666663</ele><time>2026-03-31T12:03:51Z</time></trkpt><trkpt lat="42.51612096322505" lon="-1.3580336590645123"><ele>452.0</ele><time>2026-03-31T12:03:52Z</time></trkpt><trkpt lat="42.51623910046729" lon="-1.3581603875310335"><ele>451.66666666666663</ele><time>2026-03-31T12:03:53Z</time></trkpt><trkpt lat="42.51633610650046" lon="-1.358336595047"><ele>451.33333333333337</ele><time>2026-03-31T12:03:54Z</time></trkpt><trkpt lat="42.51643940583311" lon="-1.358540763225682"><ele>451.0</ele><time>2026-03-31T12:03:55Z</time></trkpt><trkpt lat="42.51653844369704" lon="-1.3587277119843444"><ele>451.75</ele><time>2026-03-31T12:03:56Z</time></trkpt><trkpt lat="42.516617986770825" lon="-1.3589001162056984"><ele>452.5</ele><time>2026-03-31T12:03:57Z</time></trkpt><trkpt lat="42.51669638968327" lon="-1.359070043671473"><ele>453.25</ele><time>2026-03-31T12:03:58Z</time></trkpt><trkpt lat="42.51682489842316" lon="-1.3591325965231198"><ele>454.0</ele><time>2026-03-31T12:03:59Z</time></trkpt><trkpt lat="42.51698332047483" lon="-1.3592000273324447"><ele>450.33333333333337</ele><time>2026-03-31T12:04:00Z</time></trkpt><trkpt lat="42.51717102987108" lon="-1.3593145060924186"><ele>446.66666666666663</ele><time>2026-03-31T12:04:01Z</time></trkpt><trkpt lat="42.51735268286309" lon="-1.3593717606667173"><ele>443.0</ele><time>2026-03-31T12:04:02Z</time></trkpt><trkpt lat="42.51751714111521" lon="-1.3594080629177134"><ele>443.0</ele><time>2026-03-31T12:04:03Z</time></trkpt><trkpt lat="42.51767599099184" lon="-1.3593959347418114"><ele>443.0</ele><time>2026-03-31T12:04:04Z</time></trkpt><trkpt lat="42.5178319733552" lon="-1.3593901348237398"><ele>443.0</ele><time>2026-03-31T12:04:05Z</time></trkpt><trkpt lat="42.51796580741551" lon="-1.3594229143990288"><ele>442.3333333333333</ele><time>2026-03-31T12:04:06Z</time></trkpt><trkpt lat="42.51809974552878" lon="-1.3594741542592539"><ele>441.66666666666663</ele><time>2026-03-31T12:04:07Z</time></trkpt><trkpt lat="42.51822493655702" lon="-1.3595927635167981"><ele>441.0</ele><time>2026-03-31T12:04:08Z</time></trkpt><trkpt lat="42.5183293493264" lon="-1.3597905202462497"><ele>441.0</ele><time>2026-03-31T12:04:09Z</time></trkpt><trkpt lat="42.51845354395007" lon="-1.3600128455487266"><ele>441.0</ele><time>2026-03-31T12:04:10Z</time></trkpt><trkpt lat="42.518588820880495" lon="-1.3602327319105452"><ele>441.0</ele><time>2026-03-31T12:04:11Z</time></trkpt><trkpt lat="42.51872213886668" lon="-1.3604477842478575"><ele>437.33333333333337</ele><time>2026-03-31T12:04:12Z</time></trkpt><trkpt lat="42.51886658036724" lon="-1.3606551444360075"><ele>433.6666666666667</ele><time>2026-03-31T12:04:13Z</time></trkpt><trkpt lat="42.51899752920581" lon="-1.3608658172495913"><ele>430.0</ele><time>2026-03-31T12:04:14Z</time></trkpt><trkpt lat="42.51912630023105" lon="-1.3610786082453734"><ele>430.0</ele><time>2026-03-31T12:04:15Z</time></trkpt><trkpt lat="42.5192381008173" lon="-1.3612982136492757"><ele>430.0</ele><time>2026-03-31T12:04:16Z</time></trkpt><trkpt lat="42.5193682143236" lon="-1.3614760520381535"><ele>430.0</ele><time>2026-03-31T12:04:17Z</time></trkpt><trkpt lat="42.51948782332475" lon="-1.3616687344229248"><ele>427.33333333333337</ele><time>2026-03-31T12:04:18Z</time></trkpt><trkpt lat="42.51960355491363" lon="-1.3618551705451074"><ele>424.66666666666663</ele><time>2026-03-31T12:04:19Z</time></trkpt><trkpt lat="42.519715223295044" lon="-1.3620268239746869"><ele>422.0</ele><time>2026-03-31T12:04:20Z</time></trkpt><trkpt lat="42.51981215066683" lon="-1.3621965260046207"><ele>421.25</ele><time>2026-03-31T12:04:21Z</time></trkpt><trkpt lat="42.519907345780865" lon="-1.3623304657772233"><ele>420.5</ele><time>2026-03-31T12:04:22Z</time></trkpt><trkpt lat="42.51998593066024" lon="-1.3624752723936076"><ele>419.75</ele><time>2026-03-31T12:04:23Z</time></trkpt><trkpt lat="42.51999531994487" lon="-1.3626307198600311"><ele>419.0</ele><time>2026-03-31T12:04:24Z</time></trkpt><trkpt lat="42.519941808002756" lon="-1.3627882087938"><ele>419.0</ele><time>2026-03-31T12:04:25Z</time></trkpt><trkpt lat="42.51984176520664" lon="-1.3629086330144966"><ele>419.0</ele><time>2026-03-31T12:04:26Z</time></trkpt><trkpt lat="42.51974015529196" lon="-1.3630121547703928"><ele>419.0</ele><time>2026-03-31T12:04:27Z</time></trkpt><trkpt lat="42.519697009310505" lon="-1.3631379420560354"><ele>419.0</ele><time>2026-03-31T12:04:28Z</time></trkpt><trkpt lat="42.51968781254765" lon="-1.3632656344787952"><ele>419.4</ele><time>2026-03-31T12:04:29Z</time></trkpt><trkpt lat="42.51970430397118" lon="-1.3633789955710918"><ele>419.79999999999995</ele><time>2026-03-31T12:04:30Z</time></trkpt><trkpt lat="42.51979925033898" lon="-1.363425841721686"><ele>420.20000000000005</ele><time>2026-03-31T12:04:31Z</time></trkpt><trkpt lat="42.51987538593058" lon="-1.3634267599281829"><ele>420.6</ele><time>2026-03-31T12:04:32Z</time></trkpt><trkpt lat="42.519972605594596" lon="-1.3634468253359515"><ele>421.0</ele><time>2026-03-31T12:04:33Z</time></trkpt><trkpt lat="42.52008264108896" lon="-1.3634434458461864"><ele>421.0</ele><time>2026-03-31T12:04:34Z</time></trkpt><trkpt lat="42.52018332853185" lon="-1.3634651009113263"><ele>421.0</ele><time>2026-03-31T12:04:35Z</time></trkpt><trkpt lat="42.520287773632475" lon="-1.363503137072879"><ele>421.0</ele><time>2026-03-31T12:04:36Z</time></trkpt><trkpt lat="42.5203911835823" lon="-1.3635528681786453"><ele>421.0</ele><time>2026-03-31T12:04:37Z</time></trkpt><trkpt lat="42.52049252510822" lon="-1.3635946840741389"><ele>421.0</ele><time>2026-03-31T12:04:38Z</time></trkpt><trkpt lat="42.52059474288345" lon="-1.3636162668683889"><ele>420.0</ele><time>2026-03-31T12:04:39Z</time></trkpt><trkpt lat="42.52069484770079" lon="-1.3636210555989736"><ele>419.0</ele><time>2026-03-31T12:04:40Z</time></trkpt><trkpt lat="42.52079158894737" lon="-1.363625248459061"><ele>418.0</ele><time>2026-03-31T12:04:41Z</time></trkpt><trkpt lat="42.520886141022245" lon="-1.363636838765135"><ele>417.0</ele><time>2026-03-31T12:04:42Z</time></trkpt><trkpt lat="42.52099516384408" lon="-1.3636646744135938"><ele>416.0</ele><time>2026-03-31T12:04:43Z</time></trkpt><trkpt lat="42.52112818487734" lon="-1.3637325655013524"><ele>417.25</ele><time>2026-03-31T12:04:44Z</time></trkpt><trkpt lat="42.52125973947475" lon="-1.3637976122129414"><ele>418.5</ele><time>2026-03-31T12:04:45Z</time></trkpt><trkpt lat="42.52139429281298" lon="-1.3638514413968168"><ele>419.75</ele><time>2026-03-31T12:04:46Z</time></trkpt><trkpt lat="42.521529249043176" lon="-1.3638863960415284"><ele>421.0</ele><time>2026-03-31T12:04:47Z</time></trkpt><trkpt lat="42.52166754268151" lon="-1.3639088040490093"><ele>421.0</ele><time>2026-03-31T12:04:48Z</time></trkpt><trkpt lat="42.521790783254566" lon="-1.363940405489135"><ele>421.0</ele><time>2026-03-31T12:04:49Z</time></trkpt><trkpt lat="42.521903900300124" lon="-1.3639681092517124"><ele>421.0</ele><time>2026-03-31T12:04:50Z</time></trkpt><trkpt lat="42.52201180284012" lon="-1.363990503254946"><ele>421.0</ele><time>2026-03-31T12:04:51Z</time></trkpt><trkpt lat="42.522113177610436" lon="-1.364035771527204"><ele>418.5</ele><time>2026-03-31T12:04:52Z</time></trkpt><trkpt lat="42.52219663899428" lon="-1.3641233248820916"><ele>416.0</ele><time>2026-03-31T12:04:53Z</time></trkpt><trkpt lat="42.52225347446504" lon="-1.364259492537475"><ele>413.5</ele><time>2026-03-31T12:04:54Z</time></trkpt><trkpt lat="42.52229521270403" lon="-1.364436444504086"><ele>411.0</ele><time>2026-03-31T12:04:55Z</time></trkpt><trkpt lat="42.52233532765179" lon="-1.364612438716575"><ele>411.8</ele><time>2026-03-31T12:04:56Z</time></trkpt><trkpt lat="42.522377485367244" lon="-1.3647619837383678"><ele>412.6</ele><time>2026-03-31T12:04:57Z</time></trkpt><trkpt lat="42.52244215026428" lon="-1.364885914554707"><ele>413.4</ele><time>2026-03-31T12:04:58Z</time></trkpt><trkpt lat="42.52249766467703" lon="-1.3650057359366596"><ele>414.2</ele><time>2026-03-31T12:04:59Z</time></trkpt><trkpt lat="42.522543625479386" lon="-1.3651260446794706"><ele>415.0</ele><time>2026-03-31T12:05:00Z</time></trkpt><trkpt lat="42.52260289586436" lon="-1.3652274608481556"><ele>415.00000000000006</ele><time>2026-03-31T12:05:01Z</time></trkpt><trkpt lat="42.52265748980689" lon="-1.365320325826781"><ele>415.0</ele><time>2026-03-31T12:05:02Z</time></trkpt><trkpt lat="42.522706959243244" lon="-1.3653853953772397"><ele>415.0</ele><time>2026-03-31T12:05:03Z</time></trkpt><trkpt lat="42.52275724649156" lon="-1.365457590727748"><ele>415.0</ele><time>2026-03-31T12:05:04Z</time></trkpt><trkpt lat="42.52281737138125" lon="-1.3655278750091933"><ele>415.00000000000006</ele><time>2026-03-31T12:05:05Z</time></trkpt><trkpt lat="42.52288293976501" lon="-1.3655763907509662"><ele>415.0</ele><time>2026-03-31T12:05:06Z</time></trkpt><trkpt lat="42.52295697895528" lon="-1.365635974121031"><ele>414.33333333333337</ele><time>2026-03-31T12:05:07Z</time></trkpt><trkpt lat="42.52301975185241" lon="-1.3657023708375335"><ele>413.6666666666667</ele><time>2026-03-31T12:05:08Z</time></trkpt><trkpt lat="42.5231040060293" lon="-1.3657621557959416"><ele>413.0</ele><time>2026-03-31T12:05:09Z</time></trkpt><trkpt lat="42.523198797933446" lon="-1.365788820914041"><ele>412.33333333333337</ele><time>2026-03-31T12:05:10Z</time></trkpt><trkpt lat="42.52327874570846" lon="-1.3658371925220856"><ele>411.6666666666667</ele><time>2026-03-31T12:05:11Z</time></trkpt><trkpt lat="42.523357013929335" lon="-1.3658789917752174"><ele>411.0</ele><time>2026-03-31T12:05:12Z</time></trkpt><trkpt lat="42.523431277889195" lon="-1.3659320458295954"><ele>411.0</ele><time>2026-03-31T12:05:13Z</time></trkpt><trkpt lat="42.52351667099335" lon="-1.365930765132108"><ele>411.0</ele><time>2026-03-31T12:05:14Z</time></trkpt><trkpt lat="42.52359527376154" lon="-1.3659217857682475"><ele>411.0</ele><time>2026-03-31T12:05:15Z</time></trkpt><trkpt lat="42.52368162553452" lon="-1.3659149333658824"><ele>411.0</ele><time>2026-03-31T12:05:16Z</time></trkpt><trkpt lat="42.523792353113365" lon="-1.3658998080594458"><ele>411.0</ele><time>2026-03-31T12:05:17Z</time></trkpt><trkpt lat="42.52391059907862" lon="-1.365866475642048"><ele>410.6</ele><time>2026-03-31T12:05:18Z</time></trkpt><trkpt lat="42.524020499180025" lon="-1.3658316134418662"><ele>410.20000000000005</ele><time>2026-03-31T12:05:19Z</time></trkpt><trkpt lat="42.52412465777464" lon="-1.3658085617379594"><ele>409.79999999999995</ele><time>2026-03-31T12:05:20Z</time></trkpt><trkpt lat="42.5242261599956" lon="-1.3657729312237015"><ele>409.4</ele><time>2026-03-31T12:05:21Z</time></trkpt><trkpt lat="42.524331250034756" lon="-1.365742066979723"><ele>409.0</ele><time>2026-03-31T12:05:22Z</time></trkpt><trkpt lat="42.52444268463273" lon="-1.3657153601208185"><ele>405.5</ele><time>2026-03-31T12:05:23Z</time></trkpt><trkpt lat="42.52456694955796" lon="-1.3657215303008823"><ele>402.0</ele><time>2026-03-31T12:05:24Z</time></trkpt><trkpt lat="42.524690092202285" lon="-1.3657995813339887"><ele>398.5</ele><time>2026-03-31T12:05:25Z</time></trkpt><trkpt lat="42.524801324752694" lon="-1.3659171412160884"><ele>395.0</ele><time>2026-03-31T12:05:26Z</time></trkpt><trkpt lat="42.52489806711914" lon="-1.3660584142646122"><ele>395.0</ele><time>2026-03-31T12:05:27Z</time></trkpt><trkpt lat="42.52499503080927" lon="-1.366192105195265"><ele>395.0</ele><time>2026-03-31T12:05:28Z</time></trkpt><trkpt lat="42.52507767136216" lon="-1.3663192375918725"><ele>395.0</ele><time>2026-03-31T12:05:29Z</time></trkpt><trkpt lat="42.525132157466686" lon="-1.3664748872870691"><ele>395.0</ele><time>2026-03-31T12:05:30Z</time></trkpt><trkpt lat="42.525202952638104" lon="-1.3666073202823383"><ele>397.25</ele><time>2026-03-31T12:05:31Z</time></trkpt><trkpt lat="42.52524557121582" lon="-1.3667643692508862"><ele>399.5</ele><time>2026-03-31T12:05:32Z</time></trkpt><trkpt lat="42.52529851329923" lon="-1.3669223831283654"><ele>401.75</ele><time>2026-03-31T12:05:33Z</time></trkpt><trkpt lat="42.525343789912704" lon="-1.367087727502061"><ele>404.0</ele><time>2026-03-31T12:05:34Z</time></trkpt><trkpt lat="42.525378119693904" lon="-1.3672442743534308"><ele>405.4</ele><time>2026-03-31T12:05:35Z</time></trkpt><trkpt lat="42.525391125007474" lon="-1.367395663843118"><ele>406.79999999999995</ele><time>2026-03-31T12:05:36Z</time></trkpt><trkpt lat="42.52539622546085" lon="-1.3675271144231382"><ele>408.20000000000005</ele><time>2026-03-31T12:05:37Z</time></trkpt><trkpt lat="42.52540791327459" lon="-1.3676141371762676"><ele>409.6</ele><time>2026-03-31T12:05:38Z</time></trkpt><trkpt lat="42.52551296809883" lon="-1.3675897884553585"><ele>411.0</ele><time>2026-03-31T12:05:40Z</time></trkpt><trkpt lat="42.52551893967549" lon="-1.3674806215375508"><ele>404.75</ele><time>2026-03-31T12:05:41Z</time></trkpt><trkpt lat="42.525501170705375" lon="-1.3673383797167575"><ele>398.5</ele><time>2026-03-31T12:05:42Z</time></trkpt><trkpt lat="42.52548012245184" lon="-1.3671574842977539"><ele>392.25</ele><time>2026-03-31T12:05:43Z</time></trkpt><trkpt lat="42.52546046340969" lon="-1.366959187374591"><ele>386.0</ele><time>2026-03-31T12:05:44Z</time></trkpt><trkpt lat="42.5254393752367" lon="-1.3667880321306751"><ele>385.5</ele><time>2026-03-31T12:05:45Z</time></trkpt><trkpt lat="42.525410495273256" lon="-1.3666196500905343"><ele>385.0</ele><time>2026-03-31T12:05:46Z</time></trkpt><trkpt lat="42.525378327182594" lon="-1.3664414927011828"><ele>384.5</ele><time>2026-03-31T12:05:47Z</time></trkpt><trkpt lat="42.525348916121345" lon="-1.3662719085718444"><ele>384.0</ele><time>2026-03-31T12:05:48Z</time></trkpt><trkpt lat="42.525327659629745" lon="-1.3661119328321016"><ele>383.0</ele><time>2026-03-31T12:05:49Z</time></trkpt><trkpt lat="42.525316390343534" lon="-1.3659589657360711"><ele>382.0</ele><time>2026-03-31T12:05:50Z</time></trkpt><trkpt lat="42.5253231579977" lon="-1.3658117677925512"><ele>381.0</ele><time>2026-03-31T12:05:51Z</time></trkpt><trkpt lat="42.52534475455388" lon="-1.3656740065684672"><ele>380.0</ele><time>2026-03-31T12:05:52Z</time></trkpt><trkpt lat="42.525396470899935" lon="-1.3655607069699318"><ele>379.0</ele><time>2026-03-31T12:05:53Z</time></trkpt><trkpt lat="42.525468349686356" lon="-1.3654836711458542"><ele>379.0</ele><time>2026-03-31T12:05:54Z</time></trkpt><trkpt lat="42.52554571211398" lon="-1.3654341672243295"><ele>379.0</ele><time>2026-03-31T12:05:55Z</time></trkpt><trkpt lat="42.52560993803308" lon="-1.3653834062340378"><ele>379.0</ele><time>2026-03-31T12:05:56Z</time></trkpt><trkpt lat="42.52566467014579" lon="-1.3653218533580267"><ele>379.0</ele><time>2026-03-31T12:05:57Z</time></trkpt><trkpt lat="42.52571152798409" lon="-1.365241379520535"><ele>379.0</ele><time>2026-03-31T12:05:58Z</time></trkpt><trkpt lat="42.52576095080829" lon="-1.3651653412767009"><ele>379.0</ele><time>2026-03-31T12:05:59Z</time></trkpt><trkpt lat="42.525817381128334" lon="-1.365098739016992"><ele>379.0</ele><time>2026-03-31T12:06:00Z</time></trkpt><trkpt lat="42.5258803951624" lon="-1.3650406900416774"><ele>379.0</ele><time>2026-03-31T12:06:01Z</time></trkpt><trkpt lat="42.52594211338049" lon="-1.364981016072078"><ele>379.0</ele><time>2026-03-31T12:06:02Z</time></trkpt><trkpt lat="42.525999530258204" lon="-1.364916340101004"><ele>379.0</ele><time>2026-03-31T12:06:03Z</time></trkpt><trkpt lat="42.52605335376183" lon="-1.3648429451016186"><ele>379.0</ele><time>2026-03-31T12:06:04Z</time></trkpt><trkpt lat="42.52611057134335" lon="-1.3647700511306864"><ele>379.0</ele><time>2026-03-31T12:06:05Z</time></trkpt><trkpt lat="42.526169705263015" lon="-1.3646967763131383"><ele>379.0</ele><time>2026-03-31T12:06:06Z</time></trkpt><trkpt lat="42.526225113950254" lon="-1.3646264346462362"><ele>379.0</ele><time>2026-03-31T12:06:07Z</time></trkpt><trkpt lat="42.52628548143935" lon="-1.3645426008876567"><ele>379.0</ele><time>2026-03-31T12:06:08Z</time></trkpt><trkpt lat="42.52634661853891" lon="-1.364453806399587"><ele>379.0</ele><time>2026-03-31T12:06:09Z</time></trkpt><trkpt lat="42.52641155910324" lon="-1.3643601077930931"><ele>379.0</ele><time>2026-03-31T12:06:10Z</time></trkpt><trkpt lat="42.52647998747506" lon="-1.3642611542760155"><ele>379.0</ele><time>2026-03-31T12:06:11Z</time></trkpt><trkpt lat="42.52655059927696" lon="-1.3641659992428814"><ele>379.0</ele><time>2026-03-31T12:06:12Z</time></trkpt><trkpt lat="42.526621426463656" lon="-1.3640733550691733"><ele>379.0</ele><time>2026-03-31T12:06:13Z</time></trkpt><trkpt lat="42.52668999142236" lon="-1.3639824850020492"><ele>379.0</ele><time>2026-03-31T12:06:14Z</time></trkpt><trkpt lat="42.526761673284966" lon="-1.36388626283037"><ele>379.0</ele><time>2026-03-31T12:06:15Z</time></trkpt><trkpt lat="42.5268350483036" lon="-1.3637805829936744"><ele>379.0</ele><time>2026-03-31T12:06:16Z</time></trkpt><trkpt lat="42.52690890229183" lon="-1.3636723512209434"><ele>379.0</ele><time>2026-03-31T12:06:17Z</time></trkpt><trkpt lat="42.52698625250325" lon="-1.363554243927681"><ele>379.0</ele><time>2026-03-31T12:06:18Z</time></trkpt><trkpt lat="42.52706671597607" lon="-1.363434195734719"><ele>379.0</ele><time>2026-03-31T12:06:19Z</time></trkpt><trkpt lat="42.52715238437827" lon="-1.3633174312064014"><ele>379.0</ele><time>2026-03-31T12:06:20Z</time></trkpt><trkpt lat="42.527235622740605" lon="-1.3631952540178358"><ele>379.0</ele><time>2026-03-31T12:06:21Z</time></trkpt><trkpt lat="42.52731755762482" lon="-1.3630834979625335"><ele>379.0</ele><time>2026-03-31T12:06:22Z</time></trkpt><trkpt lat="42.52737938261982" lon="-1.3629901199955003"><ele>379.0</ele><time>2026-03-31T12:06:23Z</time></trkpt><trkpt lat="42.52742432592445" lon="-1.3629267602325188"><ele>379.0</ele><time>2026-03-31T12:06:24Z</time></trkpt><trkpt lat="42.52737872094697" lon="-1.3631206616030704"><ele>379.0</ele><time>2026-03-31T12:06:29Z</time></trkpt><trkpt lat="42.527268865220044" lon="-1.3632371676228958"><ele>379.0</ele><time>2026-03-31T12:06:30Z</time></trkpt><trkpt lat="42.52716179229368" lon="-1.3633753818368766"><ele>379.0</ele><time>2026-03-31T12:06:31Z</time></trkpt><trkpt lat="42.52708492057281" lon="-1.3634870062740352"><ele>379.0</ele><time>2026-03-31T12:06:32Z</time></trkpt><trkpt lat="42.52703591568967" lon="-1.363572009863292"><ele>379.0</ele><time>2026-03-31T12:06:33Z</time></trkpt><trkpt lat="42.52706272068181" lon="-1.3637100810585614"><ele>379.0</ele><time>2026-03-31T12:06:35Z</time></trkpt><trkpt lat="42.52717667177578" lon="-1.3637492918276057"><ele>379.0</ele><time>2026-03-31T12:06:37Z</time></trkpt><trkpt lat="42.52727569204404" lon="-1.3638289915365673"><ele>379.0</ele><time>2026-03-31T12:06:39Z</time></trkpt><trkpt lat="42.52736937353936" lon="-1.3639202828236556"><ele>379.0</ele><time>2026-03-31T12:06:41Z</time></trkpt><trkpt lat="42.52744488970523" lon="-1.3639377310835885"><ele>379.0</ele><time>2026-03-31T12:06:43Z</time></trkpt><trkpt lat="42.52738151579365" lon="-1.364042676018928"><ele>379.0</ele><time>2026-03-31T12:06:48Z</time></trkpt><trkpt lat="42.527346927673825" lon="-1.3641192795758597"><ele>379.00000000000006</ele><time>2026-03-31T12:07:18Z</time></trkpt><trkpt lat="42.52728648033354" lon="-1.3641580800341764"><ele>379.0</ele><time>2026-03-31T12:07:33Z</time></trkpt><trkpt lat="42.527221273389046" lon="-1.3641640879132337"><ele>379.0</ele><time>2026-03-31T12:07:40Z</time></trkpt><trkpt lat="42.52715459107417" lon="-1.364176292835734"><ele>379.0</ele><time>2026-03-31T12:07:57Z</time></trkpt><trkpt lat="42.5271432245843" lon="-1.364081042881899"><ele>379.0</ele><time>2026-03-31T12:08:02Z</time></trkpt><trkpt lat="42.527065250680096" lon="-1.3640587981952672"><ele>379.00000000000006</ele><time>2026-03-31T12:08:09Z</time></trkpt><trkpt lat="42.5270702020278" lon="-1.364154883337145"><ele>379.0</ele><time>2026-03-31T12:08:15Z</time></trkpt><trkpt lat="42.527003847277946" lon="-1.3641376484827539"><ele>378.66666666666663</ele><time>2026-03-31T12:08:20Z</time></trkpt><trkpt lat="42.52706624251329" lon="-1.3640497706904664"><ele>378.3333333333333</ele><time>2026-03-31T12:08:48Z</time></trkpt><trkpt lat="42.52714772943368" lon="-1.3640397826312756"><ele>378.0</ele><time>2026-03-31T12:09:00Z</time></trkpt><trkpt lat="42.527213707304334" lon="-1.3640671307578538"><ele>377.6666666666667</ele><time>2026-03-31T12:09:07Z</time></trkpt><trkpt lat="42.52728860145478" lon="-1.3640849507045563"><ele>377.33333333333337</ele><time>2026-03-31T12:09:13Z</time></trkpt><trkpt lat="42.52733638050195" lon="-1.3641412779118112"><ele>377.0</ele><time>2026-03-31T12:09:19Z</time></trkpt><trkpt lat="42.527361423333915" lon="-1.3640481439038545"><ele>377.0</ele><time>2026-03-31T12:11:44Z</time></trkpt><trkpt lat="42.52730084362307" lon="-1.3639435047155786"><ele>377.0</ele><time>2026-03-31T12:14:07Z</time></trkpt><trkpt lat="42.52725120525376" lon="-1.3638777779852302"><ele>377.0</ele><time>2026-03-31T12:14:08Z</time></trkpt><trkpt lat="42.52719232491039" lon="-1.3638103588758972"><ele>377.0</ele><time>2026-03-31T12:14:09Z</time></trkpt><trkpt lat="42.52712407059316" lon="-1.3637501116382675"><ele>377.0</ele><time>2026-03-31T12:14:10Z</time></trkpt><trkpt lat="42.52705867247935" lon="-1.363705804247041"><ele>377.0</ele><time>2026-03-31T12:14:11Z</time></trkpt><trkpt lat="42.52699047196513" lon="-1.3636579007449932"><ele>377.5</ele><time>2026-03-31T12:14:13Z</time></trkpt><trkpt lat="42.52700837600463" lon="-1.3635011949798352"><ele>378.0</ele><time>2026-03-31T12:14:18Z</time></trkpt><trkpt lat="42.52710087071107" lon="-1.36339062344154"><ele>378.5</ele><time>2026-03-31T12:14:19Z</time></trkpt><trkpt lat="42.52722262870866" lon="-1.3632479357550684"><ele>379.0</ele><time>2026-03-31T12:14:20Z</time></trkpt><trkpt lat="42.527350872940566" lon="-1.3630673802024873"><ele>379.0</ele><time>2026-03-31T12:14:21Z</time></trkpt><trkpt lat="42.52751748687753" lon="-1.3628480959972509"><ele>379.0</ele><time>2026-03-31T12:14:22Z</time></trkpt><trkpt lat="42.527703381420885" lon="-1.3626164473120086"><ele>379.5</ele><time>2026-03-31T12:14:23Z</time></trkpt><trkpt lat="42.527897705166076" lon="-1.3623833214593148"><ele>380.0</ele><time>2026-03-31T12:14:24Z</time></trkpt><trkpt lat="42.52810295414943" lon="-1.3621873205637207"><ele>380.0</ele><time>2026-03-31T12:14:25Z</time></trkpt><trkpt lat="42.528311740200024" lon="-1.3620057695668124"><ele>380.0</ele><time>2026-03-31T12:14:26Z</time></trkpt><trkpt lat="42.52851873293475" lon="-1.3618284417878377"><ele>379.5</ele><time>2026-03-31T12:14:27Z</time></trkpt><trkpt lat="42.52873178416821" lon="-1.3616646879504986"><ele>379.0</ele><time>2026-03-31T12:14:28Z</time></trkpt><trkpt lat="42.52894633426929" lon="-1.3615220672513644"><ele>379.0</ele><time>2026-03-31T12:14:29Z</time></trkpt><trkpt lat="42.52916527448654" lon="-1.3614012598836884"><ele>379.0</ele><time>2026-03-31T12:14:30Z</time></trkpt><trkpt lat="42.52938862666194" lon="-1.3613010575701245"><ele>379.0</ele><time>2026-03-31T12:14:31Z</time></trkpt><trkpt lat="42.52961129055459" lon="-1.3612216973372033"><ele>379.0</ele><time>2026-03-31T12:14:32Z</time></trkpt><trkpt lat="42.529839061952806" lon="-1.3611542654243736"><ele>379.0</ele><time>2026-03-31T12:14:33Z</time></trkpt><trkpt lat="42.53003494475472" lon="-1.361102309420401"><ele>379.0</ele><time>2026-03-31T12:14:34Z</time></trkpt><trkpt lat="42.53019498291835" lon="-1.3610540560860347"><ele>379.0</ele><time>2026-03-31T12:14:35Z</time></trkpt><trkpt lat="42.53034129760724" lon="-1.3610139240772559"><ele>379.5</ele><time>2026-03-31T12:14:36Z</time></trkpt><trkpt lat="42.530489304376424" lon="-1.360977305287584"><ele>380.0</ele><time>2026-03-31T12:14:37Z</time></trkpt><trkpt lat="42.530633459561685" lon="-1.360943527437044"><ele>380.5</ele><time>2026-03-31T12:14:38Z</time></trkpt><trkpt lat="42.53077129177808" lon="-1.3609066265599137"><ele>381.0</ele><time>2026-03-31T12:14:39Z</time></trkpt><trkpt lat="42.53090296003312" lon="-1.36087735244167"><ele>381.0</ele><time>2026-03-31T12:14:40Z</time></trkpt><trkpt lat="42.531026150179" lon="-1.3608403054951113"><ele>381.0</ele><time>2026-03-31T12:14:41Z</time></trkpt><trkpt lat="42.53114752963575" lon="-1.3608088897005581"><ele>381.0</ele><time>2026-03-31T12:14:42Z</time></trkpt><trkpt lat="42.531281080135955" lon="-1.360760502191032"><ele>381.0</ele><time>2026-03-31T12:14:43Z</time></trkpt><trkpt lat="42.53140212597768" lon="-1.3607298786118454"><ele>380.75</ele><time>2026-03-31T12:14:44Z</time></trkpt><trkpt lat="42.531523073656984" lon="-1.3607023756562273"><ele>380.5</ele><time>2026-03-31T12:14:45Z</time></trkpt><trkpt lat="42.53163816945871" lon="-1.360681512521064"><ele>380.25</ele><time>2026-03-31T12:14:46Z</time></trkpt><trkpt lat="42.53176643982242" lon="-1.3606565070119299"><ele>380.0</ele><time>2026-03-31T12:14:47Z</time></trkpt><trkpt lat="42.531907176376706" lon="-1.3606187109998709"><ele>380.0</ele><time>2026-03-31T12:14:48Z</time></trkpt><trkpt lat="42.53205713435615" lon="-1.3605742482724557"><ele>380.0</ele><time>2026-03-31T12:14:49Z</time></trkpt><trkpt lat="42.532223171786654" lon="-1.360528368861809"><ele>380.0</ele><time>2026-03-31T12:14:50Z</time></trkpt><trkpt lat="42.53240300710241" lon="-1.3604786718868254"><ele>379.6666666666667</ele><time>2026-03-31T12:14:51Z</time></trkpt><trkpt lat="42.53259039121655" lon="-1.3604293296514227"><ele>379.3333333333333</ele><time>2026-03-31T12:14:52Z</time></trkpt><trkpt lat="42.532777233299136" lon="-1.3603835074876482"><ele>379.0</ele><time>2026-03-31T12:14:53Z</time></trkpt><trkpt lat="42.53296252598689" lon="-1.3603417774871662"><ele>379.66666666666663</ele><time>2026-03-31T12:14:54Z</time></trkpt><trkpt lat="42.53314887156154" lon="-1.3602953419686374"><ele>380.3333333333333</ele><time>2026-03-31T12:14:55Z</time></trkpt><trkpt lat="42.53333641462629" lon="-1.3602474113426142"><ele>381.0</ele><time>2026-03-31T12:14:56Z</time></trkpt><trkpt lat="42.53352694732457" lon="-1.3601997589726025"><ele>381.0</ele><time>2026-03-31T12:14:57Z</time></trkpt><trkpt lat="42.53372097940383" lon="-1.3601453367582683"><ele>381.0</ele><time>2026-03-31T12:14:58Z</time></trkpt><trkpt lat="42.533916775510335" lon="-1.3600899262851205"><ele>381.0</ele><time>2026-03-31T12:14:59Z</time></trkpt><trkpt lat="42.53411476189629" lon="-1.3600357967062728"><ele>381.0</ele><time>2026-03-31T12:15:00Z</time></trkpt><trkpt lat="42.53431543320157" lon="-1.3599826061780265"><ele>381.0</ele><time>2026-03-31T12:15:01Z</time></trkpt><trkpt lat="42.53451960119602" lon="-1.3599300240533645"><ele>381.0</ele><time>2026-03-31T12:15:02Z</time></trkpt><trkpt lat="42.53472612687908" lon="-1.3598816465420807"><ele>381.3333333333333</ele><time>2026-03-31T12:15:03Z</time></trkpt><trkpt lat="42.534932072923304" lon="-1.3598264479702649"><ele>381.66666666666663</ele><time>2026-03-31T12:15:04Z</time></trkpt><trkpt lat="42.535143487293155" lon="-1.359767920208295"><ele>382.0</ele><time>2026-03-31T12:15:05Z</time></trkpt><trkpt lat="42.53535706704627" lon="-1.3597136188590886"><ele>381.5</ele><time>2026-03-31T12:15:06Z</time></trkpt><trkpt lat="42.53557699208029" lon="-1.3596575447405594"><ele>381.0</ele><time>2026-03-31T12:15:07Z</time></trkpt><trkpt lat="42.53579963742299" lon="-1.359599773677416"><ele>381.0</ele><time>2026-03-31T12:15:08Z</time></trkpt><trkpt lat="42.53602297457856" lon="-1.359544780866987"><ele>381.0</ele><time>2026-03-31T12:15:09Z</time></trkpt><trkpt lat="42.53624949706273" lon="-1.3594930755166745"><ele>381.0</ele><time>2026-03-31T12:15:10Z</time></trkpt><trkpt lat="42.53647547308079" lon="-1.3594382801144513"><ele>381.0</ele><time>2026-03-31T12:15:11Z</time></trkpt><trkpt lat="42.536702886256016" lon="-1.3593731495548527"><ele>381.0</ele><time>2026-03-31T12:15:12Z</time></trkpt><trkpt lat="42.53693194841669" lon="-1.3593091857787098"><ele>381.0</ele><time>2026-03-31T12:15:13Z</time></trkpt><trkpt lat="42.53716280674566" lon="-1.359245220844359"><ele>381.0</ele><time>2026-03-31T12:15:14Z</time></trkpt><trkpt lat="42.5373954536773" lon="-1.3591865127276097"><ele>381.0</ele><time>2026-03-31T12:15:15Z</time></trkpt><trkpt lat="42.53763018958854" lon="-1.3591301382584102"><ele>381.0</ele><time>2026-03-31T12:15:16Z</time></trkpt><trkpt lat="42.537866064602305" lon="-1.3590719005424092"><ele>381.0</ele><time>2026-03-31T12:15:17Z</time></trkpt><trkpt lat="42.538100895757744" lon="-1.3590101696497632"><ele>381.5</ele><time>2026-03-31T12:15:18Z</time></trkpt><trkpt lat="42.538333007846205" lon="-1.3589518480407448"><ele>382.0</ele><time>2026-03-31T12:15:19Z</time></trkpt><trkpt lat="42.53856734690618" lon="-1.358892337217926"><ele>381.5</ele><time>2026-03-31T12:15:20Z</time></trkpt><trkpt lat="42.53879901315112" lon="-1.3588307124742547"><ele>381.0</ele><time>2026-03-31T12:15:21Z</time></trkpt><trkpt lat="42.5390293727903" lon="-1.3587689460151973"><ele>381.0</ele><time>2026-03-31T12:15:22Z</time></trkpt><trkpt lat="42.53925686279832" lon="-1.3587109837171631"><ele>381.0</ele><time>2026-03-31T12:15:23Z</time></trkpt><trkpt lat="42.53948166813322" lon="-1.358657355676858"><ele>381.5</ele><time>2026-03-31T12:15:24Z</time></trkpt><trkpt lat="42.53970517502361" lon="-1.3585964790082268"><ele>382.0</ele><time>2026-03-31T12:15:25Z</time></trkpt><trkpt lat="42.53993014428791" lon="-1.3585361947053038"><ele>382.0</ele><time>2026-03-31T12:15:26Z</time></trkpt><trkpt lat="42.540161329291706" lon="-1.3584811462499748"><ele>382.0</ele><time>2026-03-31T12:15:27Z</time></trkpt><trkpt lat="42.54039457807495" lon="-1.358424183802766"><ele>381.5</ele><time>2026-03-31T12:15:28Z</time></trkpt><trkpt lat="42.54062877781024" lon="-1.3583645196796377"><ele>381.0</ele><time>2026-03-31T12:15:29Z</time></trkpt><trkpt lat="42.54086008906365" lon="-1.3583066795628589"><ele>381.0</ele><time>2026-03-31T12:15:30Z</time></trkpt><trkpt lat="42.54109946020297" lon="-1.3582435465995104"><ele>381.0</ele><time>2026-03-31T12:15:31Z</time></trkpt><trkpt lat="42.54133367334927" lon="-1.3581841498711988"><ele>381.5</ele><time>2026-03-31T12:15:32Z</time></trkpt><trkpt lat="42.54157335610241" lon="-1.358128042643816"><ele>382.0</ele><time>2026-03-31T12:15:33Z</time></trkpt><trkpt lat="42.541819001583804" lon="-1.3580741742403315"><ele>385.0</ele><time>2026-03-31T12:15:34Z</time></trkpt><trkpt lat="42.542057485772425" lon="-1.358026964492841"><ele>388.0</ele><time>2026-03-31T12:15:35Z</time></trkpt><trkpt lat="42.54229348567928" lon="-1.3579841241433042"><ele>388.0</ele><time>2026-03-31T12:15:36Z</time></trkpt><trkpt lat="42.54252866046201" lon="-1.3579486625095545"><ele>388.0</ele><time>2026-03-31T12:15:37Z</time></trkpt><trkpt lat="42.542756592565794" lon="-1.3579154861627654"><ele>393.0</ele><time>2026-03-31T12:15:38Z</time></trkpt><trkpt lat="42.542981305608706" lon="-1.3578825964326595"><ele>398.0</ele><time>2026-03-31T12:15:39Z</time></trkpt><trkpt lat="42.543205661806674" lon="-1.3578555850354148"><ele>398.0</ele><time>2026-03-31T12:15:40Z</time></trkpt><trkpt lat="42.543428945565836" lon="-1.3578361141441977"><ele>398.0</ele><time>2026-03-31T12:15:41Z</time></trkpt><trkpt lat="42.5436548510532" lon="-1.3578192534858773"><ele>399.3333333333333</ele><time>2026-03-31T12:15:42Z</time></trkpt><trkpt lat="42.543881087438564" lon="-1.3578050836986204"><ele>400.66666666666663</ele><time>2026-03-31T12:15:43Z</time></trkpt><trkpt lat="42.54410346396686" lon="-1.357795218003061"><ele>402.0</ele><time>2026-03-31T12:15:44Z</time></trkpt><trkpt lat="42.54432643675891" lon="-1.3577860932680816"><ele>403.5</ele><time>2026-03-31T12:15:45Z</time></trkpt><trkpt lat="42.544551818115885" lon="-1.3577804399434605"><ele>405.0</ele><time>2026-03-31T12:15:46Z</time></trkpt><trkpt lat="42.544781589902065" lon="-1.3577762460621425"><ele>405.0</ele><time>2026-03-31T12:15:47Z</time></trkpt><trkpt lat="42.54500822376546" lon="-1.3577797136815637"><ele>405.0</ele><time>2026-03-31T12:15:48Z</time></trkpt><trkpt lat="42.54523258879318" lon="-1.3577938447556934"><ele>406.0</ele><time>2026-03-31T12:15:49Z</time></trkpt><trkpt lat="42.545448710618594" lon="-1.3578152143015987"><ele>407.0</ele><time>2026-03-31T12:15:50Z</time></trkpt><trkpt lat="42.54566123316659" lon="-1.3578441069266511"><ele>408.0</ele><time>2026-03-31T12:15:51Z</time></trkpt><trkpt lat="42.54586794276464" lon="-1.3578779498003763"><ele>408.0</ele><time>2026-03-31T12:15:52Z</time></trkpt><trkpt lat="42.54606664423545" lon="-1.3579119712828294"><ele>408.0</ele><time>2026-03-31T12:15:53Z</time></trkpt><trkpt lat="42.54626036610308" lon="-1.357947675757168"><ele>408.0</ele><time>2026-03-31T12:15:54Z</time></trkpt><trkpt lat="42.5464498332973" lon="-1.3579883635400793"><ele>408.33333333333337</ele><time>2026-03-31T12:15:55Z</time></trkpt><trkpt lat="42.546653229355904" lon="-1.3580306603613919"><ele>408.6666666666667</ele><time>2026-03-31T12:15:56Z</time></trkpt><trkpt lat="42.54686154491259" lon="-1.358063505162417"><ele>409.0</ele><time>2026-03-31T12:15:57Z</time></trkpt><trkpt lat="42.54708119643065" lon="-1.3580925215124091"><ele>409.33333333333337</ele><time>2026-03-31T12:15:58Z</time></trkpt><trkpt lat="42.547300088607464" lon="-1.3581319789823711"><ele>409.66666666666663</ele><time>2026-03-31T12:15:59Z</time></trkpt><trkpt lat="42.547522243211496" lon="-1.358178975386464"><ele>410.0</ele><time>2026-03-31T12:16:00Z</time></trkpt><trkpt lat="42.54774747295213" lon="-1.3582201236116842"><ele>411.3333333333333</ele><time>2026-03-31T12:16:01Z</time></trkpt><trkpt lat="42.547969378073155" lon="-1.3582611216333738"><ele>412.66666666666663</ele><time>2026-03-31T12:16:02Z</time></trkpt><trkpt lat="42.54819091802297" lon="-1.358307227220553"><ele>414.0</ele><time>2026-03-31T12:16:03Z</time></trkpt><trkpt lat="42.5484124809503" lon="-1.358351799467762"><ele>414.0</ele><time>2026-03-31T12:16:04Z</time></trkpt><trkpt lat="42.5486311933388" lon="-1.3583919932791158"><ele>414.0</ele><time>2026-03-31T12:16:05Z</time></trkpt><trkpt lat="42.54884865625696" lon="-1.3584342352950656"><ele>414.0</ele><time>2026-03-31T12:16:06Z</time></trkpt><trkpt lat="42.549067710646575" lon="-1.3584780711593472"><ele>414.5</ele><time>2026-03-31T12:16:07Z</time></trkpt><trkpt lat="42.549292324769716" lon="-1.3585161706376994"><ele>415.0</ele><time>2026-03-31T12:16:08Z</time></trkpt><trkpt lat="42.549519961474765" lon="-1.3585495135745984"><ele>417.5</ele><time>2026-03-31T12:16:09Z</time></trkpt><trkpt lat="42.549751735790274" lon="-1.3585812396397727"><ele>420.0</ele><time>2026-03-31T12:16:10Z</time></trkpt><trkpt lat="42.54999089868899" lon="-1.3586056403189004"><ele>420.0</ele><time>2026-03-31T12:16:11Z</time></trkpt><trkpt lat="42.5502319925201" lon="-1.3586160014046218"><ele>420.0</ele><time>2026-03-31T12:16:12Z</time></trkpt><trkpt lat="42.55047215169236" lon="-1.358621083951537"><ele>419.0</ele><time>2026-03-31T12:16:13Z</time></trkpt><trkpt lat="42.55071189391875" lon="-1.358624845316913"><ele>418.0</ele><time>2026-03-31T12:16:14Z</time></trkpt><trkpt lat="42.55095101700469" lon="-1.3586241076452894"><ele>418.0</ele><time>2026-03-31T12:16:15Z</time></trkpt><trkpt lat="42.5511872168113" lon="-1.358613522332997"><ele>418.0</ele><time>2026-03-31T12:16:16Z</time></trkpt><trkpt lat="42.551420051927266" lon="-1.3585962994228422"><ele>417.5</ele><time>2026-03-31T12:16:17Z</time></trkpt><trkpt lat="42.551661934759906" lon="-1.3585759420545778"><ele>417.0</ele><time>2026-03-31T12:16:18Z</time></trkpt><trkpt lat="42.55189981615828" lon="-1.3585568265076882"><ele>417.0</ele><time>2026-03-31T12:16:19Z</time></trkpt><trkpt lat="42.55214192183722" lon="-1.3585474045118295"><ele>417.0</ele><time>2026-03-31T12:16:20Z</time></trkpt><trkpt lat="42.55237391301039" lon="-1.3585370176196045"><ele>417.0</ele><time>2026-03-31T12:16:21Z</time></trkpt><trkpt lat="42.55261411121566" lon="-1.3585231147857595"><ele>417.0</ele><time>2026-03-31T12:16:22Z</time></trkpt><trkpt lat="42.552846215634446" lon="-1.3585058577774674"><ele>418.0</ele><time>2026-03-31T12:16:23Z</time></trkpt><trkpt lat="42.55308155372416" lon="-1.3584974363412459"><ele>419.0</ele><time>2026-03-31T12:16:24Z</time></trkpt><trkpt lat="42.55331763103228" lon="-1.3584998982695078"><ele>419.0</ele><time>2026-03-31T12:16:25Z</time></trkpt><trkpt lat="42.55355400602264" lon="-1.3585056783147509"><ele>419.0</ele><time>2026-03-31T12:16:26Z</time></trkpt><trkpt lat="42.55379319728787" lon="-1.3585146115068902"><ele>419.0</ele><time>2026-03-31T12:16:27Z</time></trkpt><trkpt lat="42.554025256776654" lon="-1.358528611195822"><ele>419.0</ele><time>2026-03-31T12:16:28Z</time></trkpt><trkpt lat="42.55425869298343" lon="-1.3585586675516466"><ele>419.0</ele><time>2026-03-31T12:16:29Z</time></trkpt><trkpt lat="42.554487154131095" lon="-1.358612426607468"><ele>419.0</ele><time>2026-03-31T12:16:30Z</time></trkpt><trkpt lat="42.554713252526454" lon="-1.3586805433743514"><ele>416.5</ele><time>2026-03-31T12:16:31Z</time></trkpt><trkpt lat="42.55494264941088" lon="-1.3587497115527065"><ele>414.0</ele><time>2026-03-31T12:16:32Z</time></trkpt><trkpt lat="42.55517620895173" lon="-1.3588231734826013"><ele>411.0</ele><time>2026-03-31T12:16:33Z</time></trkpt><trkpt lat="42.5554053041788" lon="-1.3589071283300975"><ele>408.0</ele><time>2026-03-31T12:16:34Z</time></trkpt><trkpt lat="42.55563946608892" lon="-1.3589905363710493"><ele>408.0</ele><time>2026-03-31T12:16:35Z</time></trkpt><trkpt lat="42.55587570452062" lon="-1.3590650503318475"><ele>408.0</ele><time>2026-03-31T12:16:36Z</time></trkpt><trkpt lat="42.556111938319056" lon="-1.3591423596967365"><ele>406.0</ele><time>2026-03-31T12:16:37Z</time></trkpt><trkpt lat="42.55635352437888" lon="-1.3592336525214546"><ele>404.0</ele><time>2026-03-31T12:16:38Z</time></trkpt><trkpt lat="42.556593624353326" lon="-1.3593197482659196"><ele>404.0</ele><time>2026-03-31T12:16:39Z</time></trkpt><trkpt lat="42.55683305938593" lon="-1.3594001645477023"><ele>404.0</ele><time>2026-03-31T12:16:40Z</time></trkpt><trkpt lat="42.557075234119196" lon="-1.3594800252411137"><ele>404.0</ele><time>2026-03-31T12:16:41Z</time></trkpt><trkpt lat="42.557311031423886" lon="-1.3595549001411467"><ele>404.0</ele><time>2026-03-31T12:16:42Z</time></trkpt><trkpt lat="42.557547699491124" lon="-1.3596293601852003"><ele>403.5</ele><time>2026-03-31T12:16:43Z</time></trkpt><trkpt lat="42.55778177539013" lon="-1.3597075181982625"><ele>403.0</ele><time>2026-03-31T12:16:44Z</time></trkpt><trkpt lat="42.55801795176777" lon="-1.3597890608492462"><ele>404.5</ele><time>2026-03-31T12:16:45Z</time></trkpt><trkpt lat="42.55824717851511" lon="-1.3598687666432132"><ele>406.0</ele><time>2026-03-31T12:16:46Z</time></trkpt><trkpt lat="42.55847708429602" lon="-1.3599467089489952"><ele>406.5</ele><time>2026-03-31T12:16:47Z</time></trkpt><trkpt lat="42.5587111648427" lon="-1.3600240306189044"><ele>407.0</ele><time>2026-03-31T12:16:48Z</time></trkpt><trkpt lat="42.55893833816401" lon="-1.3601006575661714"><ele>407.0</ele><time>2026-03-31T12:16:49Z</time></trkpt><trkpt lat="42.55917745265779" lon="-1.360176008674595"><ele>407.0</ele><time>2026-03-31T12:16:50Z</time></trkpt><trkpt lat="42.559419983371704" lon="-1.3602449628187294"><ele>406.5</ele><time>2026-03-31T12:16:51Z</time></trkpt><trkpt lat="42.559658410781246" lon="-1.3602977433251913"><ele>406.0</ele><time>2026-03-31T12:16:52Z</time></trkpt><trkpt lat="42.559892669205844" lon="-1.3603342908589313"><ele>406.0</ele><time>2026-03-31T12:16:53Z</time></trkpt><trkpt lat="42.560129706409754" lon="-1.3603687684166454"><ele>406.0</ele><time>2026-03-31T12:16:54Z</time></trkpt><trkpt lat="42.56037405921111" lon="-1.3604019979019404"><ele>406.0</ele><time>2026-03-31T12:16:55Z</time></trkpt><trkpt lat="42.56061734631754" lon="-1.360423463744373"><ele>406.0</ele><time>2026-03-31T12:16:56Z</time></trkpt><trkpt lat="42.56086202148427" lon="-1.3604404027271995"><ele>406.0</ele><time>2026-03-31T12:16:57Z</time></trkpt><trkpt lat="42.56110764703262" lon="-1.3604643479012741"><ele>406.0</ele><time>2026-03-31T12:16:58Z</time></trkpt><trkpt lat="42.56134896886122" lon="-1.3604916856390923"><ele>406.0</ele><time>2026-03-31T12:16:59Z</time></trkpt><trkpt lat="42.561592110388126" lon="-1.3605191803008299"><ele>406.0</ele><time>2026-03-31T12:17:00Z</time></trkpt><trkpt lat="42.56183521208583" lon="-1.360546555038339"><ele>406.0</ele><time>2026-03-31T12:17:01Z</time></trkpt><trkpt lat="42.56207740192854" lon="-1.360575482573589"><ele>406.0</ele><time>2026-03-31T12:17:02Z</time></trkpt><trkpt lat="42.56232141817555" lon="-1.3606056155573385"><ele>406.0</ele><time>2026-03-31T12:17:03Z</time></trkpt><trkpt lat="42.562559826556196" lon="-1.360633512723434"><ele>406.0</ele><time>2026-03-31T12:17:04Z</time></trkpt><trkpt lat="42.56279908231992" lon="-1.3606610854701977"><ele>406.5</ele><time>2026-03-31T12:17:05Z</time></trkpt><trkpt lat="42.56303986814425" lon="-1.360688821825435"><ele>407.0</ele><time>2026-03-31T12:17:06Z</time></trkpt><trkpt lat="42.563285942601546" lon="-1.3607161374475516"><ele>407.0</ele><time>2026-03-31T12:17:07Z</time></trkpt><trkpt lat="42.56353245172867" lon="-1.3607447790359082"><ele>407.0</ele><time>2026-03-31T12:17:08Z</time></trkpt><trkpt lat="42.56378344734676" lon="-1.3607732272100466"><ele>407.5</ele><time>2026-03-31T12:17:09Z</time></trkpt><trkpt lat="42.56403630667323" lon="-1.36079831082398"><ele>408.0</ele><time>2026-03-31T12:17:10Z</time></trkpt><trkpt lat="42.56428472795242" lon="-1.3608243024024804"><ele>408.5</ele><time>2026-03-31T12:17:11Z</time></trkpt><trkpt lat="42.56453418669178" lon="-1.3608541805675278"><ele>409.0</ele><time>2026-03-31T12:17:12Z</time></trkpt><trkpt lat="42.56478272771808" lon="-1.3608866828396686"><ele>409.0</ele><time>2026-03-31T12:17:13Z</time></trkpt><trkpt lat="42.56503180481514" lon="-1.3609174079674013"><ele>409.0</ele><time>2026-03-31T12:17:14Z</time></trkpt><trkpt lat="42.56528341381805" lon="-1.3609448673248918"><ele>409.0</ele><time>2026-03-31T12:17:15Z</time></trkpt><trkpt lat="42.56553282056029" lon="-1.3609714454927104"><ele>409.0</ele><time>2026-03-31T12:17:16Z</time></trkpt><trkpt lat="42.565785622215984" lon="-1.3610066613641867"><ele>409.0</ele><time>2026-03-31T12:17:17Z</time></trkpt><trkpt lat="42.56603916302313" lon="-1.3610441578322017"><ele>409.0</ele><time>2026-03-31T12:17:18Z</time></trkpt><trkpt lat="42.56627626732894" lon="-1.3610697415689537"><ele>409.0</ele><time>2026-03-31T12:17:19Z</time></trkpt><trkpt lat="42.56652528208994" lon="-1.3610863557104238"><ele>409.0</ele><time>2026-03-31T12:17:20Z</time></trkpt><trkpt lat="42.566779014321426" lon="-1.3611022035126017"><ele>410.0</ele><time>2026-03-31T12:17:21Z</time></trkpt><trkpt lat="42.56703650606929" lon="-1.3611345611275156"><ele>411.0</ele><time>2026-03-31T12:17:22Z</time></trkpt><trkpt lat="42.56729113474217" lon="-1.361171911195966"><ele>411.0</ele><time>2026-03-31T12:17:23Z</time></trkpt><trkpt lat="42.567540572245555" lon="-1.3612036182351541"><ele>411.0</ele><time>2026-03-31T12:17:24Z</time></trkpt><trkpt lat="42.567788686732996" lon="-1.3612288033264566"><ele>413.0</ele><time>2026-03-31T12:17:25Z</time></trkpt><trkpt lat="42.568036026129874" lon="-1.3612512002231718"><ele>415.0</ele><time>2026-03-31T12:17:26Z</time></trkpt><trkpt lat="42.56827973081091" lon="-1.3612722435628333"><ele>415.0</ele><time>2026-03-31T12:17:27Z</time></trkpt><trkpt lat="42.568529493197296" lon="-1.3613037220231974"><ele>415.0</ele><time>2026-03-31T12:17:28Z</time></trkpt><trkpt lat="42.568786896092234" lon="-1.3613414435658402"><ele>415.0</ele><time>2026-03-31T12:17:29Z</time></trkpt><trkpt lat="42.56904596424966" lon="-1.361369269131581"><ele>415.0</ele><time>2026-03-31T12:17:30Z</time></trkpt><trkpt lat="42.569297514257194" lon="-1.3613948376299725"><ele>417.5</ele><time>2026-03-31T12:17:31Z</time></trkpt><trkpt lat="42.56954907015271" lon="-1.3614240726805296"><ele>420.0</ele><time>2026-03-31T12:17:32Z</time></trkpt><trkpt lat="42.56979923955533" lon="-1.3614492522018056"><ele>420.0</ele><time>2026-03-31T12:17:33Z</time></trkpt><trkpt lat="42.57004964463207" lon="-1.3614688738564014"><ele>420.0</ele><time>2026-03-31T12:17:34Z</time></trkpt><trkpt lat="42.57029719108035" lon="-1.361489209296887"><ele>422.5</ele><time>2026-03-31T12:17:35Z</time></trkpt><trkpt lat="42.57054553675465" lon="-1.3614998928326036"><ele>425.0</ele><time>2026-03-31T12:17:36Z</time></trkpt><trkpt lat="42.57079240339955" lon="-1.3615125817150182"><ele>425.0</ele><time>2026-03-31T12:17:37Z</time></trkpt><trkpt lat="42.57104103094249" lon="-1.3615175240388293"><ele>425.0</ele><time>2026-03-31T12:17:38Z</time></trkpt><trkpt lat="42.571291986124756" lon="-1.36152406604809"><ele>428.0</ele><time>2026-03-31T12:17:39Z</time></trkpt><trkpt lat="42.57154510649298" lon="-1.36152781838667"><ele>431.0</ele><time>2026-03-31T12:17:40Z</time></trkpt><trkpt lat="42.5717960696031" lon="-1.3615282226789696"><ele>431.5</ele><time>2026-03-31T12:17:41Z</time></trkpt><trkpt lat="42.57204328540008" lon="-1.3615343506630921"><ele>432.0</ele><time>2026-03-31T12:17:42Z</time></trkpt><trkpt lat="42.572284027714815" lon="-1.3615424774709053"><ele>432.0</ele><time>2026-03-31T12:17:43Z</time></trkpt><trkpt lat="42.57253795817624" lon="-1.361548540923004"><ele>432.0</ele><time>2026-03-31T12:17:44Z</time></trkpt><trkpt lat="42.57279008588652" lon="-1.3615544133823663"><ele>432.0</ele><time>2026-03-31T12:17:45Z</time></trkpt><trkpt lat="42.57304245185465" lon="-1.3615626983861981"><ele>432.0</ele><time>2026-03-31T12:17:46Z</time></trkpt><trkpt lat="42.573289893570845" lon="-1.3615718431493138"><ele>432.0</ele><time>2026-03-31T12:17:47Z</time></trkpt><trkpt lat="42.573544450203435" lon="-1.361576383318359"><ele>432.0</ele><time>2026-03-31T12:17:48Z</time></trkpt><trkpt lat="42.573794075930685" lon="-1.3615782079222047"><ele>433.5</ele><time>2026-03-31T12:17:49Z</time></trkpt><trkpt lat="42.574044890225025" lon="-1.3615791973675115"><ele>435.0</ele><time>2026-03-31T12:17:50Z</time></trkpt><trkpt lat="42.57429556411772" lon="-1.3615879575895031"><ele>437.0</ele><time>2026-03-31T12:17:51Z</time></trkpt><trkpt lat="42.574548179628216" lon="-1.3616041101001783"><ele>439.0</ele><time>2026-03-31T12:17:52Z</time></trkpt><trkpt lat="42.574807940945966" lon="-1.3616215744781597"><ele>439.0</ele><time>2026-03-31T12:17:53Z</time></trkpt><trkpt lat="42.57506475753662" lon="-1.3616314734187842"><ele>439.0</ele><time>2026-03-31T12:17:54Z</time></trkpt><trkpt lat="42.57531732645433" lon="-1.3616382040045567"><ele>440.5</ele><time>2026-03-31T12:17:55Z</time></trkpt><trkpt lat="42.57557000586105" lon="-1.3616507640200601"><ele>442.0</ele><time>2026-03-31T12:17:56Z</time></trkpt><trkpt lat="42.575823194282066" lon="-1.3616640616795224"><ele>442.0</ele><time>2026-03-31T12:17:57Z</time></trkpt><trkpt lat="42.576074731292245" lon="-1.3616791167458349"><ele>442.0</ele><time>2026-03-31T12:17:58Z</time></trkpt><trkpt lat="42.576327475635" lon="-1.3616981120037117"><ele>444.5</ele><time>2026-03-31T12:17:59Z</time></trkpt><trkpt lat="42.57657624626692" lon="-1.3617288809401271"><ele>447.0</ele><time>2026-03-31T12:18:00Z</time></trkpt><trkpt lat="42.57682719967539" lon="-1.3617797651229528"><ele>449.0</ele><time>2026-03-31T12:18:01Z</time></trkpt><trkpt lat="42.57707026657464" lon="-1.3618583370945265"><ele>451.0</ele><time>2026-03-31T12:18:02Z</time></trkpt><trkpt lat="42.577311935216294" lon="-1.3619587107572546"><ele>451.0</ele><time>2026-03-31T12:18:03Z</time></trkpt><trkpt lat="42.577550372157" lon="-1.3620772855675038"><ele>451.0</ele><time>2026-03-31T12:18:04Z</time></trkpt><trkpt lat="42.57778340000386" lon="-1.362206337464048"><ele>452.5</ele><time>2026-03-31T12:18:05Z</time></trkpt><trkpt lat="42.57801537007038" lon="-1.3623360321630607"><ele>454.0</ele><time>2026-03-31T12:18:06Z</time></trkpt><trkpt lat="42.578245299713245" lon="-1.3624633449285548"><ele>454.0</ele><time>2026-03-31T12:18:07Z</time></trkpt><trkpt lat="42.57847880443808" lon="-1.3625769342508756"><ele>454.0</ele><time>2026-03-31T12:18:08Z</time></trkpt><trkpt lat="42.57870326715819" lon="-1.362682402599624"><ele>456.5</ele><time>2026-03-31T12:18:09Z</time></trkpt><trkpt lat="42.57893154753143" lon="-1.3627869415991922"><ele>459.0</ele><time>2026-03-31T12:18:10Z</time></trkpt><trkpt lat="42.579164259267344" lon="-1.362885190139219"><ele>459.0</ele><time>2026-03-31T12:18:11Z</time></trkpt><trkpt lat="42.579396883957564" lon="-1.3629721421582426"><ele>459.0</ele><time>2026-03-31T12:18:12Z</time></trkpt><trkpt lat="42.579631434473704" lon="-1.363030370314277"><ele>457.5</ele><time>2026-03-31T12:18:13Z</time></trkpt><trkpt lat="42.57987355317081" lon="-1.3630700739138537"><ele>456.0</ele><time>2026-03-31T12:18:14Z</time></trkpt><trkpt lat="42.5801119494976" lon="-1.363103857910399"><ele>458.0</ele><time>2026-03-31T12:18:15Z</time></trkpt><trkpt lat="42.58035269852742" lon="-1.3631243483619357"><ele>460.0</ele><time>2026-03-31T12:18:16Z</time></trkpt><trkpt lat="42.58059167741136" lon="-1.363112465560965"><ele>460.0</ele><time>2026-03-31T12:18:17Z</time></trkpt><trkpt lat="42.58082961751414" lon="-1.3630822712588189"><ele>460.0</ele><time>2026-03-31T12:18:18Z</time></trkpt><trkpt lat="42.58107167161538" lon="-1.3630488960155533"><ele>466.0</ele><time>2026-03-31T12:18:19Z</time></trkpt><trkpt lat="42.58131090558158" lon="-1.363015769333929"><ele>472.0</ele><time>2026-03-31T12:18:20Z</time></trkpt><trkpt lat="42.581546400590284" lon="-1.3629958503472324"><ele>472.0</ele><time>2026-03-31T12:18:21Z</time></trkpt><trkpt lat="42.58178265501385" lon="-1.3629886939588052"><ele>472.0</ele><time>2026-03-31T12:18:22Z</time></trkpt><trkpt lat="42.58202098779252" lon="-1.3629828472170131"><ele>474.0</ele><time>2026-03-31T12:18:23Z</time></trkpt><trkpt lat="42.58226150190709" lon="-1.3629593591801152"><ele>476.0</ele><time>2026-03-31T12:18:24Z</time></trkpt><trkpt lat="42.582506692414654" lon="-1.362941489497195"><ele>476.0</ele><time>2026-03-31T12:18:25Z</time></trkpt><trkpt lat="42.58275399838065" lon="-1.3629271814854624"><ele>476.0</ele><time>2026-03-31T12:18:26Z</time></trkpt><trkpt lat="42.58300518307301" lon="-1.3629060464023286"><ele>481.0</ele><time>2026-03-31T12:18:27Z</time></trkpt><trkpt lat="42.58324653522915" lon="-1.3628849542588084"><ele>486.0</ele><time>2026-03-31T12:18:28Z</time></trkpt><trkpt lat="42.58349173401247" lon="-1.3628706156532155"><ele>488.0</ele><time>2026-03-31T12:18:29Z</time></trkpt><trkpt lat="42.58373332915381" lon="-1.362852107180088"><ele>490.0</ele><time>2026-03-31T12:18:30Z</time></trkpt><trkpt lat="42.58397244911606" lon="-1.3628169765477143"><ele>490.0</ele><time>2026-03-31T12:18:31Z</time></trkpt><trkpt lat="42.58420446173917" lon="-1.362769494105216"><ele>490.0</ele><time>2026-03-31T12:18:32Z</time></trkpt><trkpt lat="42.584431817782196" lon="-1.3627296615449298"><ele>491.0</ele><time>2026-03-31T12:18:33Z</time></trkpt><trkpt lat="42.584665767112476" lon="-1.3627276094623948"><ele>492.0</ele><time>2026-03-31T12:18:34Z</time></trkpt><trkpt lat="42.584908315953605" lon="-1.3627645185909494"><ele>492.0</ele><time>2026-03-31T12:18:35Z</time></trkpt><trkpt lat="42.585152351216145" lon="-1.3628306916702224"><ele>492.0</ele><time>2026-03-31T12:18:36Z</time></trkpt><trkpt lat="42.58539991535407" lon="-1.3629113189066469"><ele>493.0</ele><time>2026-03-31T12:18:37Z</time></trkpt><trkpt lat="42.58564528393819" lon="-1.3629961638734043"><ele>494.0</ele><time>2026-03-31T12:18:38Z</time></trkpt><trkpt lat="42.58588795277171" lon="-1.3630818995486835"><ele>495.0</ele><time>2026-03-31T12:18:39Z</time></trkpt><trkpt lat="42.58612600014709" lon="-1.363171689470155"><ele>496.0</ele><time>2026-03-31T12:18:40Z</time></trkpt><trkpt lat="42.586364657722946" lon="-1.3632580711526865"><ele>496.5</ele><time>2026-03-31T12:18:41Z</time></trkpt><trkpt lat="42.58660886434583" lon="-1.3633446380423566"><ele>497.0</ele><time>2026-03-31T12:18:42Z</time></trkpt><trkpt lat="42.58684629322779" lon="-1.3634328401248317"><ele>496.5</ele><time>2026-03-31T12:18:43Z</time></trkpt><trkpt lat="42.587081019124035" lon="-1.3635229979636478"><ele>496.0</ele><time>2026-03-31T12:18:44Z</time></trkpt><trkpt lat="42.58732241553553" lon="-1.36361489309484"><ele>496.0</ele><time>2026-03-31T12:18:45Z</time></trkpt><trkpt lat="42.587560926781165" lon="-1.3637055689264754"><ele>496.0</ele><time>2026-03-31T12:18:46Z</time></trkpt><trkpt lat="42.587793217602396" lon="-1.3637915566451158"><ele>498.0</ele><time>2026-03-31T12:18:47Z</time></trkpt><trkpt lat="42.58802653146573" lon="-1.3638766556821988"><ele>500.0</ele><time>2026-03-31T12:18:48Z</time></trkpt><trkpt lat="42.588251591942736" lon="-1.3639607437377175"><ele>500.0</ele><time>2026-03-31T12:18:49Z</time></trkpt><trkpt lat="42.5884727402888" lon="-1.3640432824019462"><ele>500.0</ele><time>2026-03-31T12:18:50Z</time></trkpt><trkpt lat="42.588694632880994" lon="-1.364125974259102"><ele>500.66666666666663</ele><time>2026-03-31T12:18:51Z</time></trkpt><trkpt lat="42.58890764454648" lon="-1.364210009274042"><ele>501.33333333333337</ele><time>2026-03-31T12:18:52Z</time></trkpt><trkpt lat="42.58911243665522" lon="-1.3642808364674623"><ele>502.0</ele><time>2026-03-31T12:18:53Z</time></trkpt><trkpt lat="42.589311465911805" lon="-1.3643220612424272"><ele>502.0</ele><time>2026-03-31T12:18:54Z</time></trkpt><trkpt lat="42.589507892577686" lon="-1.364336293610293"><ele>502.0</ele><time>2026-03-31T12:18:55Z</time></trkpt><trkpt lat="42.58969601370606" lon="-1.3643322485500737"><ele>502.0</ele><time>2026-03-31T12:18:56Z</time></trkpt><trkpt lat="42.58984850921403" lon="-1.364324892287655"><ele>502.6</ele><time>2026-03-31T12:18:57Z</time></trkpt><trkpt lat="42.589967215044666" lon="-1.3643169379098576"><ele>503.20000000000005</ele><time>2026-03-31T12:18:58Z</time></trkpt><trkpt lat="42.59006420712086" lon="-1.3643059667245716"><ele>503.8</ele><time>2026-03-31T12:18:59Z</time></trkpt><trkpt lat="42.59013532362714" lon="-1.3642950315478881"><ele>504.4</ele><time>2026-03-31T12:19:00Z</time></trkpt><trkpt lat="42.59020786821703" lon="-1.364274323468239"><ele>505.0</ele><time>2026-03-31T12:19:02Z</time></trkpt><trkpt lat="42.590311026245395" lon="-1.3641241537574886"><ele>505.0</ele><time>2026-03-31T12:19:06Z</time></trkpt><trkpt lat="42.59036916757014" lon="-1.3640011897390245"><ele>505.0</ele><time>2026-03-31T12:19:07Z</time></trkpt><trkpt lat="42.59043122255588" lon="-1.363876199515499"><ele>505.0</ele><time>2026-03-31T12:19:08Z</time></trkpt><trkpt lat="42.59049988836915" lon="-1.3637615138438468"><ele>505.0</ele><time>2026-03-31T12:19:09Z</time></trkpt><trkpt lat="42.590579465953994" lon="-1.3636324524517418"><ele>505.0</ele><time>2026-03-31T12:19:10Z</time></trkpt><trkpt lat="42.59066409472382" lon="-1.3635090087585844"><ele>505.0</ele><time>2026-03-31T12:19:11Z</time></trkpt><trkpt lat="42.59075418358924" lon="-1.3633947547149032"><ele>505.0</ele><time>2026-03-31T12:19:12Z</time></trkpt><trkpt lat="42.590848477779154" lon="-1.3632878687802084"><ele>505.0</ele><time>2026-03-31T12:19:13Z</time></trkpt><trkpt lat="42.59094137709255" lon="-1.3631851010142841"><ele>505.0</ele><time>2026-03-31T12:19:14Z</time></trkpt><trkpt lat="42.59103337539103" lon="-1.363082402751252"><ele>505.0</ele><time>2026-03-31T12:19:15Z</time></trkpt><trkpt lat="42.59112558236878" lon="-1.3629816977302238"><ele>505.0</ele><time>2026-03-31T12:19:16Z</time></trkpt><trkpt lat="42.59121786282669" lon="-1.3628785968354722"><ele>505.0</ele><time>2026-03-31T12:19:17Z</time></trkpt><trkpt lat="42.59130080915716" lon="-1.3627705027362031"><ele>506.2</ele><time>2026-03-31T12:19:18Z</time></trkpt><trkpt lat="42.591377919406256" lon="-1.362669590628033"><ele>507.4</ele><time>2026-03-31T12:19:19Z</time></trkpt><trkpt lat="42.59146239531364" lon="-1.3625911093846512"><ele>508.6</ele><time>2026-03-31T12:19:20Z</time></trkpt><trkpt lat="42.59157095636497" lon="-1.362560848511412"><ele>509.8</ele><time>2026-03-31T12:19:21Z</time></trkpt><trkpt lat="42.59169682941764" lon="-1.3625468951273483"><ele>511.0</ele><time>2026-03-31T12:19:22Z</time></trkpt><trkpt lat="42.59182857575232" lon="-1.3625211672423152"><ele>511.0</ele><time>2026-03-31T12:19:23Z</time></trkpt><trkpt lat="42.59195499733284" lon="-1.3624886677663477"><ele>511.0</ele><time>2026-03-31T12:19:24Z</time></trkpt><trkpt lat="42.59207814663912" lon="-1.362446623350063"><ele>511.0</ele><time>2026-03-31T12:19:25Z</time></trkpt><trkpt lat="42.59221702764272" lon="-1.3623967849198242"><ele>511.0</ele><time>2026-03-31T12:19:26Z</time></trkpt><trkpt lat="42.59236955795543" lon="-1.3623458219161906"><ele>511.5</ele><time>2026-03-31T12:19:27Z</time></trkpt><trkpt lat="42.59252295358818" lon="-1.3622960935615085"><ele>512.0</ele><time>2026-03-31T12:19:28Z</time></trkpt><trkpt lat="42.59266240968168" lon="-1.3622454988137531"><ele>512.5</ele><time>2026-03-31T12:19:29Z</time></trkpt><trkpt lat="42.59280049337096" lon="-1.3621931345828704"><ele>513.0</ele><time>2026-03-31T12:19:30Z</time></trkpt><trkpt lat="42.592938114604216" lon="-1.362145711169239"><ele>515.5</ele><time>2026-03-31T12:19:31Z</time></trkpt><trkpt lat="42.59307119571044" lon="-1.3621020650139144"><ele>518.0</ele><time>2026-03-31T12:19:32Z</time></trkpt><trkpt lat="42.59319166600416" lon="-1.3620492098811816"><ele>520.5</ele><time>2026-03-31T12:19:33Z</time></trkpt><trkpt lat="42.59329141687778" lon="-1.3619810120851148"><ele>523.0</ele><time>2026-03-31T12:19:34Z</time></trkpt><trkpt lat="42.5933778741347" lon="-1.361894551063754"><ele>523.0</ele><time>2026-03-31T12:19:35Z</time></trkpt><trkpt lat="42.593454162145285" lon="-1.3617899697707723"><ele>523.0</ele><time>2026-03-31T12:19:36Z</time></trkpt><trkpt lat="42.59351353706695" lon="-1.361689449236115"><ele>523.0</ele><time>2026-03-31T12:19:37Z</time></trkpt><trkpt lat="42.59357453793171" lon="-1.3615908036058073"><ele>523.0</ele><time>2026-03-31T12:19:38Z</time></trkpt><trkpt lat="42.59363937431739" lon="-1.3614957837859543"><ele>523.0</ele><time>2026-03-31T12:19:39Z</time></trkpt><trkpt lat="42.5936887161371" lon="-1.361426742019344"><ele>523.5</ele><time>2026-03-31T12:19:40Z</time></trkpt><trkpt lat="42.59369465146125" lon="-1.3613281509964126"><ele>524.0</ele><time>2026-03-31T12:19:42Z</time></trkpt><trkpt lat="42.593511173874724" lon="-1.3612714616751473"><ele>524.5</ele><time>2026-03-31T12:19:45Z</time></trkpt><trkpt lat="42.59339517460543" lon="-1.3612349699353918"><ele>525.0</ele><time>2026-03-31T12:19:46Z</time></trkpt><trkpt lat="42.59328241995694" lon="-1.3611857222361945"><ele>526.8</ele><time>2026-03-31T12:19:47Z</time></trkpt><trkpt lat="42.593176382682756" lon="-1.3611390743015126"><ele>528.6</ele><time>2026-03-31T12:19:48Z</time></trkpt><trkpt lat="42.593078932636935" lon="-1.3611118415642154"><ele>530.4</ele><time>2026-03-31T12:19:49Z</time></trkpt><trkpt lat="42.592985427327356" lon="-1.3610864616279816"><ele>532.2</ele><time>2026-03-31T12:19:50Z</time></trkpt><trkpt lat="42.592901412881744" lon="-1.3610640751116134"><ele>534.0</ele><time>2026-03-31T12:19:51Z</time></trkpt><trkpt lat="42.592823390983554" lon="-1.361042069959011"><ele>535.6</ele><time>2026-03-31T12:19:52Z</time></trkpt><trkpt lat="42.59276129369604" lon="-1.3610166790709894"><ele>537.2</ele><time>2026-03-31T12:19:53Z</time></trkpt><trkpt lat="42.59266538514991" lon="-1.3609710283692675"><ele>538.8000000000001</ele><time>2026-03-31T12:19:55Z</time></trkpt><trkpt lat="42.59257266778113" lon="-1.36095573587239"><ele>540.4</ele><time>2026-03-31T12:19:57Z</time></trkpt><trkpt lat="42.59248345402406" lon="-1.3608348423578922"><ele>542.0</ele><time>2026-03-31T12:19:59Z</time></trkpt><trkpt lat="42.5923662692756" lon="-1.3607656563197554"><ele>542.0</ele><time>2026-03-31T12:20:01Z</time></trkpt><trkpt lat="42.59226571074325" lon="-1.3606869847967844"><ele>542.0</ele><time>2026-03-31T12:20:03Z</time></trkpt><trkpt lat="42.59216939446141" lon="-1.360610311883254"><ele>542.0</ele><time>2026-03-31T12:20:05Z</time></trkpt><trkpt lat="42.59210915300534" lon="-1.3605561144851923"><ele>542.0</ele><time>2026-03-31T12:20:07Z</time></trkpt><trkpt lat="42.59204508472696" lon="-1.3605063892280083"><ele>542.0</ele><time>2026-03-31T12:20:09Z</time></trkpt><trkpt lat="42.59200322821523" lon="-1.360376646638992"><ele>542.1666666666666</ele><time>2026-03-31T12:20:12Z</time></trkpt><trkpt lat="42.591970633444106" lon="-1.3602884453363693"><ele>542.3333333333333</ele><time>2026-03-31T12:20:14Z</time></trkpt><trkpt lat="42.59203539916588" lon="-1.3602253745478012"><ele>542.5</ele><time>2026-03-31T12:20:15Z</time></trkpt><trkpt lat="42.592078120288015" lon="-1.3601570096348101"><ele>542.6666666666666</ele><time>2026-03-31T12:20:17Z</time></trkpt><trkpt lat="42.59205160415629" lon="-1.3600630882102982"><ele>542.8333333333334</ele><time>2026-03-31T12:20:20Z</time></trkpt><trkpt lat="42.59202129128171" lon="-1.3599380928782325"><ele>543.0</ele><time>2026-03-31T12:20:22Z</time></trkpt><trkpt lat="42.59199532447042" lon="-1.3598499254896996"><ele>543.0</ele><time>2026-03-31T12:20:28Z</time></trkpt><trkpt lat="42.59195422786095" lon="-1.3597490552049178"><ele>543.0</ele><time>2026-03-31T12:20:32Z</time></trkpt><trkpt lat="42.591886916568235" lon="-1.3596187224001348"><ele>543.0</ele><time>2026-03-31T12:20:34Z</time></trkpt><trkpt lat="42.591818209547895" lon="-1.3594811150967459"><ele>543.0</ele><time>2026-03-31T12:20:36Z</time></trkpt><trkpt lat="42.591833608353426" lon="-1.3593828676144453"><ele>543.0</ele><time>2026-03-31T12:20:37Z</time></trkpt><trkpt lat="42.5917827841961" lon="-1.3592084568399831"><ele>545.3333333333334</ele><time>2026-03-31T12:20:38Z</time></trkpt><trkpt lat="42.59174584844232" lon="-1.3591296501196648"><ele>547.6666666666666</ele><time>2026-03-31T12:20:39Z</time></trkpt><trkpt lat="42.59167114622452" lon="-1.3590086295452908"><ele>550.0</ele><time>2026-03-31T12:20:41Z</time></trkpt><trkpt lat="42.59163394325648" lon="-1.3589331750194031"><ele>552.3333333333333</ele><time>2026-03-31T12:20:42Z</time></trkpt><trkpt lat="42.59160101787341" lon="-1.3588531737325709"><ele>554.6666666666666</ele><time>2026-03-31T12:20:43Z</time></trkpt><trkpt lat="42.591559472047805" lon="-1.3587160796586628"><ele>557.0</ele><time>2026-03-31T12:20:45Z</time></trkpt><trkpt lat="42.591502186152695" lon="-1.3586199866824171"><ele>555.4</ele><time>2026-03-31T12:20:47Z</time></trkpt><trkpt lat="42.59144422163752" lon="-1.3585267520646145"><ele>553.8000000000001</ele><time>2026-03-31T12:20:49Z</time></trkpt><trkpt lat="42.591373384915386" lon="-1.358539175795263"><ele>552.2</ele><time>2026-03-31T12:20:50Z</time></trkpt><trkpt lat="42.591283649583026" lon="-1.3585298623814257"><ele>550.6</ele><time>2026-03-31T12:20:52Z</time></trkpt><trkpt lat="42.59118918468636" lon="-1.3584371477601904"><ele>549.0</ele><time>2026-03-31T12:20:54Z</time></trkpt><trkpt lat="42.59112531697275" lon="-1.358317554095349"><ele>549.0</ele><time>2026-03-31T12:20:56Z</time></trkpt><trkpt lat="42.59103767462198" lon="-1.3582422948967638"><ele>549.0</ele><time>2026-03-31T12:20:58Z</time></trkpt><trkpt lat="42.59095402516112" lon="-1.35818566461879"><ele>549.0</ele><time>2026-03-31T12:21:00Z</time></trkpt><trkpt lat="42.59089382317154" lon="-1.3581235205440234"><ele>549.0</ele><time>2026-03-31T12:21:01Z</time></trkpt><trkpt lat="42.590838563442595" lon="-1.3580602973929057"><ele>549.0</ele><time>2026-03-31T12:21:02Z</time></trkpt><trkpt lat="42.5907815606652" lon="-1.3580175017540521"><ele>549.0</ele><time>2026-03-31T12:21:03Z</time></trkpt><trkpt lat="42.59068593778856" lon="-1.3579238300394647"><ele>550.8333333333334</ele><time>2026-03-31T12:21:05Z</time></trkpt><trkpt lat="42.59060993506395" lon="-1.3578455220449983"><ele>552.6666666666666</ele><time>2026-03-31T12:21:07Z</time></trkpt><trkpt lat="42.590538518488124" lon="-1.3577875887249848"><ele>554.5</ele><time>2026-03-31T12:21:10Z</time></trkpt><trkpt lat="42.590470917085085" lon="-1.3578280928915325"><ele>556.3333333333333</ele><time>2026-03-31T12:21:14Z</time></trkpt><trkpt lat="42.59040105875039" lon="-1.3578414067814413"><ele>558.1666666666666</ele><time>2026-03-31T12:21:17Z</time></trkpt><trkpt lat="42.59030910073894" lon="-1.35786237257661"><ele>560.0</ele><time>2026-03-31T12:21:19Z</time></trkpt><trkpt lat="42.59024911855149" lon="-1.3578914967572617"><ele>558.1666666666666</ele><time>2026-03-31T12:21:21Z</time></trkpt><trkpt lat="42.59033187101744" lon="-1.3579616406204529"><ele>556.3333333333333</ele><time>2026-03-31T12:21:26Z</time></trkpt><trkpt lat="42.590394697634835" lon="-1.358078158897606"><ele>554.5</ele><time>2026-03-31T12:21:28Z</time></trkpt><trkpt lat="42.590440688448055" lon="-1.358173893582675"><ele>552.6666666666666</ele><time>2026-03-31T12:21:30Z</time></trkpt><trkpt lat="42.59047685773273" lon="-1.3582537371226446"><ele>550.8333333333334</ele><time>2026-03-31T12:21:31Z</time></trkpt><trkpt lat="42.5905098657053" lon="-1.3583384030450791"><ele>549.0</ele><time>2026-03-31T12:21:32Z</time></trkpt><trkpt lat="42.59053844071609" lon="-1.358418672835704"><ele>549.0</ele><time>2026-03-31T12:21:33Z</time></trkpt><trkpt lat="42.59058779164019" lon="-1.3585620569870254"><ele>549.0</ele><time>2026-03-31T12:21:35Z</time></trkpt><trkpt lat="42.59064579220525" lon="-1.3587340598868705"><ele>549.0</ele><time>2026-03-31T12:21:37Z</time></trkpt><trkpt lat="42.59065498196797" lon="-1.358853892884375"><ele>549.0</ele><time>2026-03-31T12:21:38Z</time></trkpt><trkpt lat="42.590683136301834" lon="-1.3589591803406502"><ele>549.0</ele><time>2026-03-31T12:21:39Z</time></trkpt><trkpt lat="42.59070818677509" lon="-1.3590505488519178"><ele>547.0</ele><time>2026-03-31T12:21:40Z</time></trkpt><trkpt lat="42.59074347003239" lon="-1.3591250308349565"><ele>545.0</ele><time>2026-03-31T12:21:41Z</time></trkpt><trkpt lat="42.59079857201863" lon="-1.3591669154414254"><ele>543.0</ele><time>2026-03-31T12:21:42Z</time></trkpt><trkpt lat="42.59082468176268" lon="-1.3592898003294422"><ele>541.0</ele><time>2026-03-31T12:21:45Z</time></trkpt><trkpt lat="42.59078479398554" lon="-1.3594113889625987"><ele>539.0</ele><time>2026-03-31T12:21:47Z</time></trkpt><trkpt lat="42.59075842780363" lon="-1.3594918630938613"><ele>537.0</ele><time>2026-03-31T12:21:49Z</time></trkpt><trkpt lat="42.59071051603417" lon="-1.3596029420289153"><ele>535.1666666666666</ele><time>2026-03-31T12:21:51Z</time></trkpt><trkpt lat="42.59069018334665" lon="-1.3597709825752289"><ele>533.3333333333334</ele><time>2026-03-31T12:21:53Z</time></trkpt><trkpt lat="42.590670539005885" lon="-1.3598642443850302"><ele>531.5</ele><time>2026-03-31T12:21:54Z</time></trkpt><trkpt lat="42.59065157753844" lon="-1.3599542642400575"><ele>529.6666666666667</ele><time>2026-03-31T12:21:55Z</time></trkpt><trkpt lat="42.59063258345877" lon="-1.3600444388051982"><ele>527.8333333333334</ele><time>2026-03-31T12:21:56Z</time></trkpt><trkpt lat="42.590615798468235" lon="-1.360127635363767"><ele>526.0</ele><time>2026-03-31T12:21:57Z</time></trkpt><trkpt lat="42.59058365845749" lon="-1.360283764193043"><ele>526.0</ele><time>2026-03-31T12:21:59Z</time></trkpt><trkpt lat="42.590563930314" lon="-1.3604278513530026"><ele>526.0</ele><time>2026-03-31T12:22:01Z</time></trkpt><trkpt lat="42.59056717953838" lon="-1.3605609036826418"><ele>526.0</ele><time>2026-03-31T12:22:03Z</time></trkpt><trkpt lat="42.59057072015779" lon="-1.3606950674322003"><ele>526.0</ele><time>2026-03-31T12:22:05Z</time></trkpt><trkpt lat="42.59058092264801" lon="-1.3608703105395386"><ele>526.0</ele><time>2026-03-31T12:22:07Z</time></trkpt><trkpt lat="42.59058693766898" lon="-1.3609582910185845"><ele>525.2857142857142</ele><time>2026-03-31T12:22:08Z</time></trkpt><trkpt lat="42.590590678243395" lon="-1.361047384633433"><ele>524.5714285714286</ele><time>2026-03-31T12:22:09Z</time></trkpt><trkpt lat="42.590587574921635" lon="-1.3611492243211816"><ele>523.8571428571429</ele><time>2026-03-31T12:22:10Z</time></trkpt><trkpt lat="42.590580842700675" lon="-1.3612456322237347"><ele>523.1428571428571</ele><time>2026-03-31T12:22:11Z</time></trkpt><trkpt lat="42.59056562206953" lon="-1.3613387914029516"><ele>522.4285714285714</ele><time>2026-03-31T12:22:12Z</time></trkpt><trkpt lat="42.59057248538918" lon="-1.3614369332211242"><ele>521.7142857142857</ele><time>2026-03-31T12:22:13Z</time></trkpt><trkpt lat="42.590588030393725" lon="-1.3615310516560146"><ele>521.0</ele><time>2026-03-31T12:22:14Z</time></trkpt><trkpt lat="42.59061356254414" lon="-1.3616235458911818"><ele>520.1428571428571</ele><time>2026-03-31T12:22:15Z</time></trkpt><trkpt lat="42.590641822764354" lon="-1.3617092007497187"><ele>519.2857142857143</ele><time>2026-03-31T12:22:16Z</time></trkpt><trkpt lat="42.59067834293757" lon="-1.3617938275065873"><ele>518.4285714285714</ele><time>2026-03-31T12:22:17Z</time></trkpt><trkpt lat="42.590714989275725" lon="-1.3618634906250449"><ele>517.5714285714286</ele><time>2026-03-31T12:22:18Z</time></trkpt><trkpt lat="42.59076142193742" lon="-1.3619254965867982"><ele>516.7142857142857</ele><time>2026-03-31T12:22:19Z</time></trkpt><trkpt lat="42.59082288282461" lon="-1.3619701499668988"><ele>515.8571428571429</ele><time>2026-03-31T12:22:20Z</time></trkpt><trkpt lat="42.59085897451181" lon="-1.3620421544129944"><ele>515.0</ele><time>2026-03-31T12:22:21Z</time></trkpt><trkpt lat="42.59093588910338" lon="-1.3621697202143828"><ele>514.3333333333333</ele><time>2026-03-31T12:22:23Z</time></trkpt><trkpt lat="42.59099740098886" lon="-1.362283065826402"><ele>513.6666666666666</ele><time>2026-03-31T12:22:25Z</time></trkpt><trkpt lat="42.59105607543446" lon="-1.3623345267958766"><ele>513.0</ele><time>2026-03-31T12:22:26Z</time></trkpt><trkpt lat="42.591131244243364" lon="-1.3623933224912506"><ele>512.3333333333334</ele><time>2026-03-31T12:22:27Z</time></trkpt><trkpt lat="42.5912056295247" lon="-1.3624525756586852"><ele>511.6666666666667</ele><time>2026-03-31T12:22:28Z</time></trkpt><trkpt lat="42.59127480475284" lon="-1.362506656526688"><ele>511.0</ele><time>2026-03-31T12:22:29Z</time></trkpt><trkpt lat="42.59133662275403" lon="-1.3625542120557776"><ele>511.0</ele><time>2026-03-31T12:22:30Z</time></trkpt><trkpt lat="42.591429439788875" lon="-1.362633654603671"><ele>511.0</ele><time>2026-03-31T12:22:32Z</time></trkpt><trkpt lat="42.59152915311613" lon="-1.3625949746000217"><ele>511.0</ele><time>2026-03-31T12:22:33Z</time></trkpt><trkpt lat="42.59162956837753" lon="-1.3625731421566323"><ele>511.0</ele><time>2026-03-31T12:22:34Z</time></trkpt><trkpt lat="42.5917251340452" lon="-1.3625462987067192"><ele>511.0</ele><time>2026-03-31T12:22:35Z</time></trkpt><trkpt lat="42.59182862697904" lon="-1.3625177166932791"><ele>511.0</ele><time>2026-03-31T12:22:36Z</time></trkpt><trkpt lat="42.59193304983784" lon="-1.3624907970907119"><ele>511.0</ele><time>2026-03-31T12:22:37Z</time></trkpt><trkpt lat="42.592045786469306" lon="-1.3624570096791582"><ele>511.0</ele><time>2026-03-31T12:22:38Z</time></trkpt><trkpt lat="42.59217344724949" lon="-1.3624139713747292"><ele>511.0</ele><time>2026-03-31T12:22:39Z</time></trkpt><trkpt lat="42.59231461341055" lon="-1.3623694777978776"><ele>511.6666666666667</ele><time>2026-03-31T12:22:40Z</time></trkpt><trkpt lat="42.59247350020113" lon="-1.3623143802968576"><ele>512.3333333333334</ele><time>2026-03-31T12:22:41Z</time></trkpt><trkpt lat="42.59262702420442" lon="-1.3622551660329048"><ele>513.0</ele><time>2026-03-31T12:22:42Z</time></trkpt><trkpt lat="42.59277321961759" lon="-1.362205847701427"><ele>515.5</ele><time>2026-03-31T12:22:43Z</time></trkpt><trkpt lat="42.59291482030644" lon="-1.3621599338285808"><ele>518.0</ele><time>2026-03-31T12:22:44Z</time></trkpt><trkpt lat="42.593055648037684" lon="-1.362110885522647"><ele>520.5</ele><time>2026-03-31T12:22:45Z</time></trkpt><trkpt lat="42.59317668074099" lon="-1.36205568512315"><ele>523.0</ele><time>2026-03-31T12:22:46Z</time></trkpt><trkpt lat="42.593295425813146" lon="-1.3619727738324132"><ele>523.0</ele><time>2026-03-31T12:22:47Z</time></trkpt><trkpt lat="42.59341358772372" lon="-1.3618519950473895"><ele>523.0</ele><time>2026-03-31T12:22:48Z</time></trkpt><trkpt lat="42.59351402988781" lon="-1.3617000901773213"><ele>523.0</ele><time>2026-03-31T12:22:49Z</time></trkpt><trkpt lat="42.59360664051019" lon="-1.3615354592357936"><ele>523.5</ele><time>2026-03-31T12:22:50Z</time></trkpt><trkpt lat="42.59370030224257" lon="-1.3613811902496649"><ele>524.0</ele><time>2026-03-31T12:22:51Z</time></trkpt><trkpt lat="42.593801652792365" lon="-1.3612397541791306"><ele>524.5</ele><time>2026-03-31T12:22:52Z</time></trkpt><trkpt lat="42.59390310113525" lon="-1.3611081852403624"><ele>525.0</ele><time>2026-03-31T12:22:53Z</time></trkpt><trkpt lat="42.593991082580494" lon="-1.360988659423423"><ele>525.0</ele><time>2026-03-31T12:22:54Z</time></trkpt><trkpt lat="42.594062166735725" lon="-1.360871363738615"><ele>525.0</ele><time>2026-03-31T12:22:55Z</time></trkpt><trkpt lat="42.59411533651991" lon="-1.3607295263491366"><ele>525.0</ele><time>2026-03-31T12:22:56Z</time></trkpt><trkpt lat="42.59415285002871" lon="-1.3605574253086623"><ele>525.0</ele><time>2026-03-31T12:22:57Z</time></trkpt><trkpt lat="42.59416472248961" lon="-1.3603507599509628"><ele>526.6666666666666</ele><time>2026-03-31T12:22:58Z</time></trkpt><trkpt lat="42.59414719599517" lon="-1.3601301460398751"><ele>528.3333333333333</ele><time>2026-03-31T12:22:59Z</time></trkpt><trkpt lat="42.5941196375582" lon="-1.3598868806755098"><ele>530.0</ele><time>2026-03-31T12:23:00Z</time></trkpt><trkpt lat="42.59409198494009" lon="-1.3596553939375222"><ele>531.3333333333333</ele><time>2026-03-31T12:23:01Z</time></trkpt><trkpt lat="42.59406742759386" lon="-1.3594292828335655"><ele>532.6666666666666</ele><time>2026-03-31T12:23:02Z</time></trkpt><trkpt lat="42.594046517464264" lon="-1.35921225715481"><ele>534.0</ele><time>2026-03-31T12:23:03Z</time></trkpt><trkpt lat="42.594017613464075" lon="-1.3589936892369223"><ele>534.3333333333334</ele><time>2026-03-31T12:23:04Z</time></trkpt><trkpt lat="42.5939856297795" lon="-1.3587784697788587"><ele>534.6666666666667</ele><time>2026-03-31T12:23:05Z</time></trkpt><trkpt lat="42.59396349859851" lon="-1.3585615058327083"><ele>535.0</ele><time>2026-03-31T12:23:06Z</time></trkpt><trkpt lat="42.59394645165547" lon="-1.3583303779855072"><ele>535.0</ele><time>2026-03-31T12:23:07Z</time></trkpt><trkpt lat="42.59392169414206" lon="-1.3580865116497833"><ele>535.0</ele><time>2026-03-31T12:23:08Z</time></trkpt><trkpt lat="42.59389890406906" lon="-1.3578489956394875"><ele>535.0</ele><time>2026-03-31T12:23:09Z</time></trkpt><trkpt lat="42.5938750051435" lon="-1.357613998766391"><ele>535.0</ele><time>2026-03-31T12:23:10Z</time></trkpt><trkpt lat="42.59384735908543" lon="-1.357380766376578"><ele>535.0</ele><time>2026-03-31T12:23:11Z</time></trkpt><trkpt lat="42.59381795972632" lon="-1.357154537568107"><ele>535.0</ele><time>2026-03-31T12:23:12Z</time></trkpt><trkpt lat="42.59379272013484" lon="-1.3569235997052906"><ele>535.3333333333334</ele><time>2026-03-31T12:23:13Z</time></trkpt><trkpt lat="42.593771384763244" lon="-1.3566852522138975"><ele>535.6666666666666</ele><time>2026-03-31T12:23:14Z</time></trkpt><trkpt lat="42.59374349110289" lon="-1.3564498891023675"><ele>536.0</ele><time>2026-03-31T12:23:15Z</time></trkpt><trkpt lat="42.59371428435238" lon="-1.3562229681476883"><ele>537.0</ele><time>2026-03-31T12:23:16Z</time></trkpt><trkpt lat="42.593704531426596" lon="-1.3559941594208649"><ele>538.0</ele><time>2026-03-31T12:23:17Z</time></trkpt><trkpt lat="42.5937219113941" lon="-1.3557696449285819"><ele>539.0</ele><time>2026-03-31T12:23:18Z</time></trkpt><trkpt lat="42.59376656009987" lon="-1.3555472393624874"><ele>540.6666666666666</ele><time>2026-03-31T12:23:19Z</time></trkpt><trkpt lat="42.59381234029904" lon="-1.3553297501219905"><ele>542.3333333333334</ele><time>2026-03-31T12:23:20Z</time></trkpt><trkpt lat="42.59404762363858" lon="-1.3552249815426276"><ele>544.0</ele><time>2026-03-31T12:23:21Z</time></trkpt><trkpt lat="42.59421622444791" lon="-1.3551171595155267"><ele>544.0</ele><time>2026-03-31T12:23:22Z</time></trkpt><trkpt lat="42.59439313151149" lon="-1.3549968783998572"><ele>544.0</ele><time>2026-03-31T12:23:23Z</time></trkpt><trkpt lat="42.59457215781669" lon="-1.3548474313411019"><ele>544.0</ele><time>2026-03-31T12:23:24Z</time></trkpt><trkpt lat="42.594764530028385" lon="-1.3546969166961431"><ele>545.0</ele><time>2026-03-31T12:23:25Z</time></trkpt><trkpt lat="42.59497374262643" lon="-1.354561592098895"><ele>546.0</ele><time>2026-03-31T12:23:26Z</time></trkpt><trkpt lat="42.59519290584147" lon="-1.354426602924797"><ele>548.0</ele><time>2026-03-31T12:23:27Z</time></trkpt><trkpt lat="42.59541734999361" lon="-1.3542904380323622"><ele>550.0</ele><time>2026-03-31T12:23:28Z</time></trkpt><trkpt lat="42.595641745297044" lon="-1.3541670401000303"><ele>550.0</ele><time>2026-03-31T12:23:29Z</time></trkpt><trkpt lat="42.595876133202616" lon="-1.3540464050045726"><ele>550.0</ele><time>2026-03-31T12:23:30Z</time></trkpt><trkpt lat="42.596105824507404" lon="-1.3539242219132415"><ele>553.5</ele><time>2026-03-31T12:23:31Z</time></trkpt><trkpt lat="42.59633198145175" lon="-1.3538010204965922"><ele>557.0</ele><time>2026-03-31T12:23:32Z</time></trkpt><trkpt lat="42.59655380770705" lon="-1.3536815467695464"><ele>557.0</ele><time>2026-03-31T12:23:33Z</time></trkpt><trkpt lat="42.596779713510124" lon="-1.3535584819819797"><ele>557.0</ele><time>2026-03-31T12:23:34Z</time></trkpt><trkpt lat="42.59701072256841" lon="-1.3534272228607334"><ele>558.5</ele><time>2026-03-31T12:23:35Z</time></trkpt><trkpt lat="42.597224392803184" lon="-1.3533107477789512"><ele>560.0</ele><time>2026-03-31T12:23:36Z</time></trkpt><trkpt lat="42.59744268025915" lon="-1.3531948338219935"><ele>560.0</ele><time>2026-03-31T12:23:37Z</time></trkpt><trkpt lat="42.59765397588529" lon="-1.3530809895592846"><ele>560.0</ele><time>2026-03-31T12:23:38Z</time></trkpt><trkpt lat="42.59786382187711" lon="-1.352968089665081"><ele>562.6666666666666</ele><time>2026-03-31T12:23:39Z</time></trkpt><trkpt lat="42.59807362383029" lon="-1.3528635830771385"><ele>565.3333333333334</ele><time>2026-03-31T12:23:40Z</time></trkpt><trkpt lat="42.598281639478834" lon="-1.352779800375315"><ele>568.0</ele><time>2026-03-31T12:23:41Z</time></trkpt><trkpt lat="42.59849281221092" lon="-1.3527246431478972"><ele>572.5</ele><time>2026-03-31T12:23:42Z</time></trkpt><trkpt lat="42.59871423975929" lon="-1.3527025273008562"><ele>577.0</ele><time>2026-03-31T12:23:43Z</time></trkpt><trkpt lat="42.598941694085454" lon="-1.352713262622031"><ele>577.0</ele><time>2026-03-31T12:23:44Z</time></trkpt><trkpt lat="42.59917414317683" lon="-1.3527101469244383"><ele>577.0</ele><time>2026-03-31T12:23:45Z</time></trkpt><trkpt lat="42.59939460033901" lon="-1.3527034228492494"><ele>580.3333333333334</ele><time>2026-03-31T12:23:46Z</time></trkpt><trkpt lat="42.5996122224738" lon="-1.3527063690119083"><ele>583.6666666666666</ele><time>2026-03-31T12:23:47Z</time></trkpt><trkpt lat="42.599816882157846" lon="-1.3527173847408838"><ele>587.0</ele><time>2026-03-31T12:23:48Z</time></trkpt><trkpt lat="42.60001164364559" lon="-1.3527600439236798"><ele>587.0</ele><time>2026-03-31T12:23:49Z</time></trkpt><trkpt lat="42.60021288870871" lon="-1.3528641091328435"><ele>587.0</ele><time>2026-03-31T12:23:50Z</time></trkpt><trkpt lat="42.60040008248427" lon="-1.3530177826959344"><ele>587.0</ele><time>2026-03-31T12:23:51Z</time></trkpt><trkpt lat="42.60055944976293" lon="-1.3532065583676012"><ele>589.0</ele><time>2026-03-31T12:23:52Z</time></trkpt><trkpt lat="42.60070375315634" lon="-1.3534236389870504"><ele>591.0</ele><time>2026-03-31T12:23:53Z</time></trkpt><trkpt lat="42.60084993648794" lon="-1.353666696005041"><ele>593.0</ele><time>2026-03-31T12:23:54Z</time></trkpt><trkpt lat="42.6009865789094" lon="-1.3538985720020598"><ele>593.0</ele><time>2026-03-31T12:23:55Z</time></trkpt><trkpt lat="42.60112403056364" lon="-1.3541155354346168"><ele>593.0</ele><time>2026-03-31T12:23:56Z</time></trkpt><trkpt lat="42.6012729513486" lon="-1.354342992727584"><ele>593.0</ele><time>2026-03-31T12:23:57Z</time></trkpt><trkpt lat="42.60144096959013" lon="-1.3545890312280413"><ele>597.5</ele><time>2026-03-31T12:23:58Z</time></trkpt><trkpt lat="42.601620876680244" lon="-1.3548364352986404"><ele>602.0</ele><time>2026-03-31T12:23:59Z</time></trkpt><trkpt lat="42.60181730757469" lon="-1.3550658920758563"><ele>612.0</ele><time>2026-03-31T12:24:00Z</time></trkpt><trkpt lat="42.60203647547262" lon="-1.355270341877653"><ele>622.0</ele><time>2026-03-31T12:24:01Z</time></trkpt><trkpt lat="42.60227077030368" lon="-1.3554635267990844"><ele>617.0</ele><time>2026-03-31T12:24:02Z</time></trkpt><trkpt lat="42.602490302103874" lon="-1.3556400839740608"><ele>612.0</ele><time>2026-03-31T12:24:03Z</time></trkpt><trkpt lat="42.60270097726128" lon="-1.355817415435147"><ele>620.5</ele><time>2026-03-31T12:24:04Z</time></trkpt><trkpt lat="42.602906023457706" lon="-1.3560008048062848"><ele>629.0</ele><time>2026-03-31T12:24:05Z</time></trkpt><trkpt lat="42.6031200386607" lon="-1.3561853764692025"><ele>629.0</ele><time>2026-03-31T12:24:06Z</time></trkpt><trkpt lat="42.603337810714955" lon="-1.3563646159046332"><ele>629.0</ele><time>2026-03-31T12:24:07Z</time></trkpt><trkpt lat="42.60355685102418" lon="-1.3565300890723733"><ele>628.5</ele><time>2026-03-31T12:24:08Z</time></trkpt><trkpt lat="42.603785457032956" lon="-1.3566718424713442"><ele>628.0</ele><time>2026-03-31T12:24:09Z</time></trkpt><trkpt lat="42.604019228814465" lon="-1.3567923519556213"><ele>628.0</ele><time>2026-03-31T12:24:10Z</time></trkpt><trkpt lat="42.60425672700367" lon="-1.3569088556084297"><ele>628.0</ele><time>2026-03-31T12:24:11Z</time></trkpt><trkpt lat="42.604488293349476" lon="-1.3570327561247226"><ele>628.5</ele><time>2026-03-31T12:24:12Z</time></trkpt><trkpt lat="42.60471326037364" lon="-1.3571581657166047"><ele>629.0</ele><time>2026-03-31T12:24:13Z</time></trkpt><trkpt lat="42.60494272745505" lon="-1.3572727820934614"><ele>629.0</ele><time>2026-03-31T12:24:14Z</time></trkpt><trkpt lat="42.60517330161101" lon="-1.3573722866885523"><ele>629.0</ele><time>2026-03-31T12:24:15Z</time></trkpt><trkpt lat="42.60540505067734" lon="-1.3574583341024176"><ele>634.5</ele><time>2026-03-31T12:24:16Z</time></trkpt><trkpt lat="42.60561936742807" lon="-1.3575293390181"><ele>640.0</ele><time>2026-03-31T12:24:17Z</time></trkpt><trkpt lat="42.60584662473945" lon="-1.3576046629886405"><ele>640.0</ele><time>2026-03-31T12:24:18Z</time></trkpt><trkpt lat="42.60606326467002" lon="-1.357673562934092"><ele>640.0</ele><time>2026-03-31T12:24:19Z</time></trkpt><trkpt lat="42.60626868182403" lon="-1.3577406655578241"><ele>640.0</ele><time>2026-03-31T12:24:20Z</time></trkpt><trkpt lat="42.60645492173448" lon="-1.3577912022307128"><ele>643.3333333333334</ele><time>2026-03-31T12:24:21Z</time></trkpt><trkpt lat="42.60664911961281" lon="-1.35781311169341"><ele>646.6666666666666</ele><time>2026-03-31T12:24:22Z</time></trkpt><trkpt lat="42.60684207500159" lon="-1.3577694028341687"><ele>650.0</ele><time>2026-03-31T12:24:23Z</time></trkpt><trkpt lat="42.60702169754166" lon="-1.3576730635394552"><ele>650.6666666666666</ele><time>2026-03-31T12:24:24Z</time></trkpt><trkpt lat="42.60718388758484" lon="-1.3575196806910292"><ele>651.3333333333334</ele><time>2026-03-31T12:24:25Z</time></trkpt><trkpt lat="42.60733829616185" lon="-1.3573310181735228"><ele>652.0</ele><time>2026-03-31T12:24:26Z</time></trkpt><trkpt lat="42.607495615946625" lon="-1.3571269940309794"><ele>652.0</ele><time>2026-03-31T12:24:27Z</time></trkpt><trkpt lat="42.607675133856425" lon="-1.3569470158244952"><ele>652.0</ele><time>2026-03-31T12:24:28Z</time></trkpt><trkpt lat="42.607880828913885" lon="-1.3568127311263831"><ele>653.0</ele><time>2026-03-31T12:24:29Z</time></trkpt><trkpt lat="42.60809730274603" lon="-1.3567229208742935"><ele>654.0</ele><time>2026-03-31T12:24:30Z</time></trkpt><trkpt lat="42.608322428693945" lon="-1.3566184004156452"><ele>654.0</ele><time>2026-03-31T12:24:31Z</time></trkpt><trkpt lat="42.60853804231335" lon="-1.3564708403532248"><ele>654.0</ele><time>2026-03-31T12:24:32Z</time></trkpt><trkpt lat="42.60874027254853" lon="-1.3562854102644701"><ele>653.0</ele><time>2026-03-31T12:24:33Z</time></trkpt><trkpt lat="42.60894039080173" lon="-1.356083115201637"><ele>652.0</ele><time>2026-03-31T12:24:34Z</time></trkpt><trkpt lat="42.609143366711876" lon="-1.3558652899284669"><ele>652.0</ele><time>2026-03-31T12:24:35Z</time></trkpt><trkpt lat="42.60933732034132" lon="-1.3556165917820222"><ele>652.0</ele><time>2026-03-31T12:24:36Z</time></trkpt><trkpt lat="42.6095089138158" lon="-1.3553363977468562"><ele>657.5</ele><time>2026-03-31T12:24:37Z</time></trkpt><trkpt lat="42.609662399869585" lon="-1.3550412225731856"><ele>663.0</ele><time>2026-03-31T12:24:38Z</time></trkpt><trkpt lat="42.60981229804068" lon="-1.3547668314479466"><ele>662.6666666666666</ele><time>2026-03-31T12:24:39Z</time></trkpt><trkpt lat="42.60995154166816" lon="-1.3545445790658657"><ele>662.3333333333333</ele><time>2026-03-31T12:24:40Z</time></trkpt><trkpt lat="42.61006042157612" lon="-1.3543022585653446"><ele>662.0</ele><time>2026-03-31T12:24:41Z</time></trkpt><trkpt lat="42.61014678891783" lon="-1.3540015291082037"><ele>665.0</ele><time>2026-03-31T12:24:42Z</time></trkpt><trkpt lat="42.61018598358473" lon="-1.3536904311400917"><ele>668.0</ele><time>2026-03-31T12:24:43Z</time></trkpt><trkpt lat="42.61020321950137" lon="-1.3533743165067909"><ele>668.0</ele><time>2026-03-31T12:24:44Z</time></trkpt><trkpt lat="42.610136386235745" lon="-1.3530548455630582"><ele>668.0</ele><time>2026-03-31T12:24:45Z</time></trkpt><trkpt lat="42.61006174882842" lon="-1.3527750487658163"><ele>669.0</ele><time>2026-03-31T12:24:46Z</time></trkpt><trkpt lat="42.610005995754484" lon="-1.3525146817129288"><ele>670.0</ele><time>2026-03-31T12:24:47Z</time></trkpt><trkpt lat="42.610000611165965" lon="-1.3522295891749831"><ele>671.0</ele><time>2026-03-31T12:24:48Z</time></trkpt><trkpt lat="42.61006095059144" lon="-1.3519230115832936"><ele>671.0</ele><time>2026-03-31T12:24:49Z</time></trkpt><trkpt lat="42.61016000081862" lon="-1.3516053075341221"><ele>671.0</ele><time>2026-03-31T12:24:50Z</time></trkpt><trkpt lat="42.61025517990821" lon="-1.351274343939352"><ele>676.5</ele><time>2026-03-31T12:24:51Z</time></trkpt><trkpt lat="42.61035147149694" lon="-1.350926727142135"><ele>682.0</ele><time>2026-03-31T12:24:52Z</time></trkpt><trkpt lat="42.610451002449324" lon="-1.3506022764790688"><ele>682.3333333333334</ele><time>2026-03-31T12:24:53Z</time></trkpt><trkpt lat="42.61053351332821" lon="-1.3503175029143724"><ele>682.6666666666666</ele><time>2026-03-31T12:24:54Z</time></trkpt><trkpt lat="42.61059645244784" lon="-1.35005463250724"><ele>683.0</ele><time>2026-03-31T12:24:55Z</time></trkpt><trkpt lat="42.61065965869575" lon="-1.3498127065967631"><ele>681.0</ele><time>2026-03-31T12:24:56Z</time></trkpt><trkpt lat="42.610733066884" lon="-1.349591919492805"><ele>679.0</ele><time>2026-03-31T12:24:57Z</time></trkpt><trkpt lat="42.61084278631125" lon="-1.3493988155856058"><ele>677.0</ele><time>2026-03-31T12:24:58Z</time></trkpt><trkpt lat="42.610976441899794" lon="-1.349263607385642"><ele>676.5</ele><time>2026-03-31T12:24:59Z</time></trkpt><trkpt lat="42.61119303839861" lon="-1.3492090694802374"><ele>676.0</ele><time>2026-03-31T12:25:00Z</time></trkpt><trkpt lat="42.6114261683367" lon="-1.3492244345618556"><ele>676.0</ele><time>2026-03-31T12:25:01Z</time></trkpt><trkpt lat="42.611670794402755" lon="-1.3492754634413833"><ele>676.0</ele><time>2026-03-31T12:25:02Z</time></trkpt><trkpt lat="42.61191980294258" lon="-1.349320466398246"><ele>674.5</ele><time>2026-03-31T12:25:03Z</time></trkpt><trkpt lat="42.61217663935062" lon="-1.3493687139386454"><ele>673.0</ele><time>2026-03-31T12:25:04Z</time></trkpt><trkpt lat="42.612410805925684" lon="-1.3494026857329313"><ele>673.0</ele><time>2026-03-31T12:25:05Z</time></trkpt><trkpt lat="42.61261434552329" lon="-1.3494697752885358"><ele>673.0</ele><time>2026-03-31T12:25:06Z</time></trkpt><trkpt lat="42.612819729310274" lon="-1.3496257787902712"><ele>673.0</ele><time>2026-03-31T12:25:07Z</time></trkpt><trkpt lat="42.613001128680004" lon="-1.3498496054976663"><ele>680.5</ele><time>2026-03-31T12:25:08Z</time></trkpt><trkpt lat="42.613173981482944" lon="-1.3500627999573864"><ele>688.0</ele><time>2026-03-31T12:25:09Z</time></trkpt><trkpt lat="42.61338914096682" lon="-1.3502135427098423"><ele>688.0</ele><time>2026-03-31T12:25:10Z</time></trkpt><trkpt lat="42.613641964860484" lon="-1.3502859642094036"><ele>688.0</ele><time>2026-03-31T12:25:11Z</time></trkpt><trkpt lat="42.61390014457056" lon="-1.3503503825649483"><ele>683.5</ele><time>2026-03-31T12:25:12Z</time></trkpt><trkpt lat="42.61414675689254" lon="-1.3504017864887594"><ele>679.0</ele><time>2026-03-31T12:25:13Z</time></trkpt><trkpt lat="42.614361307664424" lon="-1.3504400169791282"><ele>681.3333333333334</ele><time>2026-03-31T12:25:14Z</time></trkpt><trkpt lat="42.61455813306275" lon="-1.350478400121562"><ele>683.6666666666666</ele><time>2026-03-31T12:25:15Z</time></trkpt><trkpt lat="42.6147469520537" lon="-1.350436605951794"><ele>686.0</ele><time>2026-03-31T12:25:16Z</time></trkpt><trkpt lat="42.61491354748946" lon="-1.3503196567114526"><ele>686.0</ele><time>2026-03-31T12:25:17Z</time></trkpt><trkpt lat="42.61505367846501" lon="-1.350124276415473"><ele>686.0</ele><time>2026-03-31T12:25:18Z</time></trkpt><trkpt lat="42.61515106351698" lon="-1.3498692532312242"><ele>686.0</ele><time>2026-03-31T12:25:19Z</time></trkpt><trkpt lat="42.615230161418054" lon="-1.3496103364242782"><ele>684.0</ele><time>2026-03-31T12:25:20Z</time></trkpt><trkpt lat="42.615307209893494" lon="-1.3493717354324806"><ele>682.0</ele><time>2026-03-31T12:25:21Z</time></trkpt><trkpt lat="42.61543136438614" lon="-1.349182668315761"><ele>680.0</ele><time>2026-03-31T12:25:22Z</time></trkpt><trkpt lat="42.61561800666586" lon="-1.3490630831765549"><ele>686.0</ele><time>2026-03-31T12:25:23Z</time></trkpt><trkpt lat="42.61583798133712" lon="-1.3490014990875052"><ele>692.0</ele><time>2026-03-31T12:25:24Z</time></trkpt><trkpt lat="42.61606927607407" lon="-1.3490127687470925"><ele>689.5</ele><time>2026-03-31T12:25:25Z</time></trkpt><trkpt lat="42.61630665021894" lon="-1.3490308778498046"><ele>687.0</ele><time>2026-03-31T12:25:26Z</time></trkpt><trkpt lat="42.616558888851735" lon="-1.349032535312534"><ele>687.0</ele><time>2026-03-31T12:25:27Z</time></trkpt><trkpt lat="42.61682590832944" lon="-1.3490282881967908"><ele>687.0</ele><time>2026-03-31T12:25:28Z</time></trkpt><trkpt lat="42.61708914997083" lon="-1.3490214704636057"><ele>685.5</ele><time>2026-03-31T12:25:29Z</time></trkpt><trkpt lat="42.617342151232485" lon="-1.34901873293552"><ele>684.0</ele><time>2026-03-31T12:25:30Z</time></trkpt><trkpt lat="42.61757613266502" lon="-1.3490138185090275"><ele>684.0</ele><time>2026-03-31T12:25:31Z</time></trkpt><trkpt lat="42.61778763693485" lon="-1.3490098009292497"><ele>684.0</ele><time>2026-03-31T12:25:32Z</time></trkpt><trkpt lat="42.61797271193918" lon="-1.3490181211866565"><ele>684.0</ele><time>2026-03-31T12:25:33Z</time></trkpt><trkpt lat="42.61815344983163" lon="-1.3490912002162248"><ele>681.0</ele><time>2026-03-31T12:25:34Z</time></trkpt><trkpt lat="42.61832189644339" lon="-1.3492480524061035"><ele>678.0</ele><time>2026-03-31T12:25:35Z</time></trkpt><trkpt lat="42.6184740115095" lon="-1.3494617141900869"><ele>675.0</ele><time>2026-03-31T12:25:36Z</time></trkpt><trkpt lat="42.61864524873897" lon="-1.3496735203821406"><ele>679.0</ele><time>2026-03-31T12:25:37Z</time></trkpt><trkpt lat="42.618841195295296" lon="-1.3498433105058234"><ele>683.0</ele><time>2026-03-31T12:25:38Z</time></trkpt><trkpt lat="42.619065869190194" lon="-1.3499357086266235"><ele>683.0</ele><time>2026-03-31T12:25:39Z</time></trkpt><trkpt lat="42.61929893374957" lon="-1.3500086869071235"><ele>683.0</ele><time>2026-03-31T12:25:40Z</time></trkpt><trkpt lat="42.619521285924755" lon="-1.3501114403706775"><ele>680.5</ele><time>2026-03-31T12:25:41Z</time></trkpt><trkpt lat="42.61974130589903" lon="-1.350229650471928"><ele>678.0</ele><time>2026-03-31T12:25:42Z</time></trkpt><trkpt lat="42.61993943643685" lon="-1.350401233704893"><ele>682.5</ele><time>2026-03-31T12:25:43Z</time></trkpt><trkpt lat="42.620145621438226" lon="-1.350545691544883"><ele>687.0</ele><time>2026-03-31T12:25:44Z</time></trkpt><trkpt lat="42.620380064406746" lon="-1.3505927031728764"><ele>688.0</ele><time>2026-03-31T12:25:45Z</time></trkpt><trkpt lat="42.62061709560985" lon="-1.3505833037412935"><ele>689.0</ele><time>2026-03-31T12:25:46Z</time></trkpt><trkpt lat="42.62086585892057" lon="-1.3505639130689573"><ele>687.0</ele><time>2026-03-31T12:25:47Z</time></trkpt><trkpt lat="42.621112878003" lon="-1.3505188735894216"><ele>685.0</ele><time>2026-03-31T12:25:48Z</time></trkpt><trkpt lat="42.621373285722385" lon="-1.350509903139814"><ele>687.6666666666667</ele><time>2026-03-31T12:25:49Z</time></trkpt><trkpt lat="42.621602606283545" lon="-1.3504987746900863"><ele>690.3333333333334</ele><time>2026-03-31T12:25:50Z</time></trkpt><trkpt lat="42.62180837241111" lon="-1.3504565811798044"><ele>693.0</ele><time>2026-03-31T12:25:51Z</time></trkpt><trkpt lat="42.62200596114309" lon="-1.3503864417925966"><ele>697.0</ele><time>2026-03-31T12:25:52Z</time></trkpt><trkpt lat="42.622204013163376" lon="-1.3502664310602637"><ele>701.0</ele><time>2026-03-31T12:25:53Z</time></trkpt><trkpt lat="42.62239452879283" lon="-1.3501102167522916"><ele>705.0</ele><time>2026-03-31T12:25:54Z</time></trkpt><trkpt lat="42.62256481302111" lon="-1.3499720772386732"><ele>705.0</ele><time>2026-03-31T12:25:55Z</time></trkpt><trkpt lat="42.62273525056668" lon="-1.3498787833023949"><ele>705.0</ele><time>2026-03-31T12:25:56Z</time></trkpt><trkpt lat="42.622909673445676" lon="-1.3498453164464852"><ele>705.0</ele><time>2026-03-31T12:25:57Z</time></trkpt><trkpt lat="42.623091001046305" lon="-1.3498685747952917"><ele>705.0</ele><time>2026-03-31T12:25:58Z</time></trkpt><trkpt lat="42.6232686725894" lon="-1.349968340690252"><ele>705.0</ele><time>2026-03-31T12:25:59Z</time></trkpt><trkpt lat="42.62342612828086" lon="-1.350116512721775"><ele>705.0</ele><time>2026-03-31T12:26:00Z</time></trkpt><trkpt lat="42.6235608534825" lon="-1.3503105845659205"><ele>701.3333333333334</ele><time>2026-03-31T12:26:01Z</time></trkpt><trkpt lat="42.623699992499134" lon="-1.3505299246369868"><ele>697.6666666666667</ele><time>2026-03-31T12:26:02Z</time></trkpt><trkpt lat="42.62386547206775" lon="-1.350723827694536"><ele>694.0</ele><time>2026-03-31T12:26:03Z</time></trkpt><trkpt lat="42.62408429185813" lon="-1.3508290247366388"><ele>694.0</ele><time>2026-03-31T12:26:04Z</time></trkpt><trkpt lat="42.624310264987535" lon="-1.3509481990511538"><ele>694.0</ele><time>2026-03-31T12:26:05Z</time></trkpt><trkpt lat="42.62455963075265" lon="-1.3510335799178537"><ele>685.0</ele><time>2026-03-31T12:26:06Z</time></trkpt><trkpt lat="42.624827214254935" lon="-1.3511415323473548"><ele>676.0</ele><time>2026-03-31T12:26:07Z</time></trkpt><trkpt lat="42.62508945841357" lon="-1.351237880096397"><ele>670.5</ele><time>2026-03-31T12:26:08Z</time></trkpt><trkpt lat="42.62535321375139" lon="-1.3512705551282271"><ele>665.0</ele><time>2026-03-31T12:26:09Z</time></trkpt><trkpt lat="42.62561153033347" lon="-1.3513263097030996"><ele>665.0</ele><time>2026-03-31T12:26:10Z</time></trkpt><trkpt lat="42.62586446973308" lon="-1.351343438101004"><ele>665.0</ele><time>2026-03-31T12:26:11Z</time></trkpt><trkpt lat="42.62611483825817" lon="-1.351395964655893"><ele>667.0</ele><time>2026-03-31T12:26:12Z</time></trkpt><trkpt lat="42.62634758839924" lon="-1.351507002565393"><ele>669.0</ele><time>2026-03-31T12:26:13Z</time></trkpt><trkpt lat="42.62657054934937" lon="-1.3516793355087728"><ele>669.0</ele><time>2026-03-31T12:26:14Z</time></trkpt><trkpt lat="42.626795612128866" lon="-1.3518748156543694"><ele>669.0</ele><time>2026-03-31T12:26:15Z</time></trkpt><trkpt lat="42.62701715482523" lon="-1.3520698423088628"><ele>668.5</ele><time>2026-03-31T12:26:16Z</time></trkpt><trkpt lat="42.62723716981608" lon="-1.3522612239787022"><ele>668.0</ele><time>2026-03-31T12:26:17Z</time></trkpt><trkpt lat="42.62746236077349" lon="-1.3524471947702092"><ele>668.0</ele><time>2026-03-31T12:26:18Z</time></trkpt><trkpt lat="42.62768729504294" lon="-1.3526310780550175"><ele>668.0</ele><time>2026-03-31T12:26:19Z</time></trkpt><trkpt lat="42.62790354747743" lon="-1.3528104229824947"><ele>664.5</ele><time>2026-03-31T12:26:20Z</time></trkpt><trkpt lat="42.6281203589314" lon="-1.3529963637221392"><ele>661.0</ele><time>2026-03-31T12:26:21Z</time></trkpt><trkpt lat="42.628339077138214" lon="-1.3531841939848177"><ele>661.0</ele><time>2026-03-31T12:26:22Z</time></trkpt><trkpt lat="42.62856118976943" lon="-1.3533674347863336"><ele>661.0</ele><time>2026-03-31T12:26:23Z</time></trkpt><trkpt lat="42.628774197510324" lon="-1.35353984294705"><ele>657.5</ele><time>2026-03-31T12:26:24Z</time></trkpt><trkpt lat="42.62897088247149" lon="-1.3537072929104683"><ele>654.0</ele><time>2026-03-31T12:26:25Z</time></trkpt><trkpt lat="42.629155343107186" lon="-1.3538748829738265"><ele>654.0</ele><time>2026-03-31T12:26:26Z</time></trkpt><trkpt lat="42.62933538253872" lon="-1.3540434633130534"><ele>654.0</ele><time>2026-03-31T12:26:27Z</time></trkpt><trkpt lat="42.62951211399128" lon="-1.3542300993499643"><ele>654.0</ele><time>2026-03-31T12:26:28Z</time></trkpt><trkpt lat="42.62967880380035" lon="-1.3544316259041627"><ele>646.5</ele><time>2026-03-31T12:26:29Z</time></trkpt><trkpt lat="42.62985413111898" lon="-1.3546275754170622"><ele>639.0</ele><time>2026-03-31T12:26:30Z</time></trkpt><trkpt lat="42.63006741155854" lon="-1.354776807415243"><ele>639.0</ele><time>2026-03-31T12:26:31Z</time></trkpt><trkpt lat="42.63030033400297" lon="-1.354868604342746"><ele>639.0</ele><time>2026-03-31T12:26:32Z</time></trkpt><trkpt lat="42.63054802478641" lon="-1.3549033905190155"><ele>635.5</ele><time>2026-03-31T12:26:33Z</time></trkpt><trkpt lat="42.63079399311017" lon="-1.354878979112413"><ele>632.0</ele><time>2026-03-31T12:26:34Z</time></trkpt><trkpt lat="42.63103500439218" lon="-1.3548023963910103"><ele>622.5</ele><time>2026-03-31T12:26:35Z</time></trkpt><trkpt lat="42.631268287930816" lon="-1.3546852840163082"><ele>613.0</ele><time>2026-03-31T12:26:36Z</time></trkpt><trkpt lat="42.63149847587051" lon="-1.3545751482667585"><ele>613.0</ele><time>2026-03-31T12:26:37Z</time></trkpt><trkpt lat="42.63174170304183" lon="-1.3545142749249361"><ele>613.0</ele><time>2026-03-31T12:26:38Z</time></trkpt><trkpt lat="42.63199961520177" lon="-1.3544763017120443"><ele>611.5</ele><time>2026-03-31T12:26:39Z</time></trkpt><trkpt lat="42.63226620680802" lon="-1.3544626144041614"><ele>610.0</ele><time>2026-03-31T12:26:40Z</time></trkpt><trkpt lat="42.632526228803854" lon="-1.3544902447290572"><ele>610.0</ele><time>2026-03-31T12:26:41Z</time></trkpt><trkpt lat="42.63278421833492" lon="-1.3545309768659537"><ele>610.0</ele><time>2026-03-31T12:26:42Z</time></trkpt><trkpt lat="42.63303558483649" lon="-1.3545658210883855"><ele>602.5</ele><time>2026-03-31T12:26:43Z</time></trkpt><trkpt lat="42.63327616561048" lon="-1.3546069451679852"><ele>595.0</ele><time>2026-03-31T12:26:44Z</time></trkpt><trkpt lat="42.63351427479715" lon="-1.354659103272121"><ele>599.5</ele><time>2026-03-31T12:26:45Z</time></trkpt><trkpt lat="42.63374245547898" lon="-1.3547152351776783"><ele>604.0</ele><time>2026-03-31T12:26:46Z</time></trkpt><trkpt lat="42.63396690342779" lon="-1.3547775723835798"><ele>604.0</ele><time>2026-03-31T12:26:47Z</time></trkpt><trkpt lat="42.634167533615184" lon="-1.3548569104652641"><ele>604.0</ele><time>2026-03-31T12:26:48Z</time></trkpt><trkpt lat="42.63436880519297" lon="-1.354946354821648"><ele>604.0</ele><time>2026-03-31T12:26:49Z</time></trkpt><trkpt lat="42.6345691376901" lon="-1.3549739059152517"><ele>598.3333333333334</ele><time>2026-03-31T12:26:50Z</time></trkpt><trkpt lat="42.634784976045246" lon="-1.354922476195348"><ele>592.6666666666666</ele><time>2026-03-31T12:26:51Z</time></trkpt><trkpt lat="42.63499911951492" lon="-1.3548137720131743"><ele>587.0</ele><time>2026-03-31T12:26:52Z</time></trkpt><trkpt lat="42.635196782471745" lon="-1.3546497942156042"><ele>582.5</ele><time>2026-03-31T12:26:53Z</time></trkpt><trkpt lat="42.635360370670085" lon="-1.3544288776514475"><ele>578.0</ele><time>2026-03-31T12:26:54Z</time></trkpt><trkpt lat="42.63548481059162" lon="-1.3541640325207893"><ele>578.0</ele><time>2026-03-31T12:26:55Z</time></trkpt><trkpt lat="42.6355748053121" lon="-1.3538737525488074"><ele>578.0</ele><time>2026-03-31T12:26:56Z</time></trkpt><trkpt lat="42.635622711001176" lon="-1.3535657709629023"><ele>575.5</ele><time>2026-03-31T12:26:57Z</time></trkpt><trkpt lat="42.635665062788554" lon="-1.353250096943925"><ele>573.0</ele><time>2026-03-31T12:26:58Z</time></trkpt><trkpt lat="42.63571872267171" lon="-1.3529126127185902"><ele>571.0</ele><time>2026-03-31T12:26:59Z</time></trkpt><trkpt lat="42.63578072388284" lon="-1.352557176436437"><ele>569.0</ele><time>2026-03-31T12:27:00Z</time></trkpt><trkpt lat="42.63582317700353" lon="-1.3521904839998817"><ele>565.5</ele><time>2026-03-31T12:27:01Z</time></trkpt><trkpt lat="42.63583929691597" lon="-1.3518132467123047"><ele>562.0</ele><time>2026-03-31T12:27:02Z</time></trkpt><trkpt lat="42.63583845548749" lon="-1.351426472709504"><ele>558.5</ele><time>2026-03-31T12:27:03Z</time></trkpt><trkpt lat="42.6358187119406" lon="-1.3510497301918716"><ele>555.0</ele><time>2026-03-31T12:27:04Z</time></trkpt><trkpt lat="42.635779670969505" lon="-1.350683514962459"><ele>556.0</ele><time>2026-03-31T12:27:05Z</time></trkpt><trkpt lat="42.63572343527004" lon="-1.3503337388824481"><ele>557.0</ele><time>2026-03-31T12:27:06Z</time></trkpt><trkpt lat="42.63565883254378" lon="-1.3500042127402139"><ele>561.0</ele><time>2026-03-31T12:27:07Z</time></trkpt><trkpt lat="42.63559074368761" lon="-1.3496923777889482"><ele>565.0</ele><time>2026-03-31T12:27:08Z</time></trkpt><trkpt lat="42.63551534865252" lon="-1.3493908203892486"><ele>565.0</ele><time>2026-03-31T12:27:09Z</time></trkpt><trkpt lat="42.63545093734287" lon="-1.3490933636963987"><ele>565.0</ele><time>2026-03-31T12:27:10Z</time></trkpt><trkpt lat="42.63543321824279" lon="-1.3488014704734268"><ele>565.0</ele><time>2026-03-31T12:27:11Z</time></trkpt><trkpt lat="42.63546604876535" lon="-1.3484984274294023"><ele>565.5</ele><time>2026-03-31T12:27:12Z</time></trkpt><trkpt lat="42.63554842830604" lon="-1.3482124650033056"><ele>566.0</ele><time>2026-03-31T12:27:13Z</time></trkpt><trkpt lat="42.63567152269138" lon="-1.347944319543524"><ele>564.0</ele><time>2026-03-31T12:27:14Z</time></trkpt><trkpt lat="42.6358223271536" lon="-1.3476821423284766"><ele>562.0</ele><time>2026-03-31T12:27:15Z</time></trkpt><trkpt lat="42.6359889817823" lon="-1.3474114549424274"><ele>559.5</ele><time>2026-03-31T12:27:16Z</time></trkpt><trkpt lat="42.63614206163483" lon="-1.3471444568248716"><ele>557.0</ele><time>2026-03-31T12:27:17Z</time></trkpt><trkpt lat="42.636281478058386" lon="-1.3468762231973452"><ele>557.0</ele><time>2026-03-31T12:27:18Z</time></trkpt><trkpt lat="42.63640256414771" lon="-1.3465937510867163"><ele>557.0</ele><time>2026-03-31T12:27:19Z</time></trkpt><trkpt lat="42.63650475697432" lon="-1.346299641143269"><ele>553.0</ele><time>2026-03-31T12:27:20Z</time></trkpt><trkpt lat="42.636601930293736" lon="-1.3460051401436686"><ele>549.0</ele><time>2026-03-31T12:27:21Z</time></trkpt><trkpt lat="42.63670578101554" lon="-1.3457174633458335"><ele>546.5</ele><time>2026-03-31T12:27:22Z</time></trkpt><trkpt lat="42.63681117251602" lon="-1.3454272227252388"><ele>544.0</ele><time>2026-03-31T12:27:23Z</time></trkpt><trkpt lat="42.636910229850066" lon="-1.3451415799164035"><ele>546.0</ele><time>2026-03-31T12:27:24Z</time></trkpt><trkpt lat="42.63700831237926" lon="-1.3448692139486982"><ele>548.0</ele><time>2026-03-31T12:27:25Z</time></trkpt><trkpt lat="42.63710116073736" lon="-1.3445941334749953"><ele>550.0</ele><time>2026-03-31T12:27:26Z</time></trkpt><trkpt lat="42.63717177720742" lon="-1.3443084895915143"><ele>550.0</ele><time>2026-03-31T12:27:27Z</time></trkpt><trkpt lat="42.63720149837987" lon="-1.344010454603308"><ele>550.0</ele><time>2026-03-31T12:27:28Z</time></trkpt><trkpt lat="42.63718311257786" lon="-1.3437089127237463"><ele>550.0</ele><time>2026-03-31T12:27:29Z</time></trkpt><trkpt lat="42.63714632141431" lon="-1.343421966244679"><ele>548.0</ele><time>2026-03-31T12:27:30Z</time></trkpt><trkpt lat="42.637104545182346" lon="-1.3431303864495054"><ele>546.0</ele><time>2026-03-31T12:27:31Z</time></trkpt><trkpt lat="42.63708588419591" lon="-1.3428591043536513"><ele>544.0</ele><time>2026-03-31T12:27:32Z</time></trkpt><trkpt lat="42.637102802076825" lon="-1.342617536842857"><ele>541.0</ele><time>2026-03-31T12:27:33Z</time></trkpt><trkpt lat="42.63716810299626" lon="-1.342384701354807"><ele>538.0</ele><time>2026-03-31T12:27:34Z</time></trkpt><trkpt lat="42.63729286926283" lon="-1.3421716787701214"><ele>535.0</ele><time>2026-03-31T12:27:35Z</time></trkpt><trkpt lat="42.63744891761795" lon="-1.3420159967241365"><ele>529.0</ele><time>2026-03-31T12:27:36Z</time></trkpt><trkpt lat="42.63764312829342" lon="-1.3419247062927717"><ele>523.0</ele><time>2026-03-31T12:27:37Z</time></trkpt><trkpt lat="42.6378621558582" lon="-1.3418751403448068"><ele>517.0</ele><time>2026-03-31T12:27:38Z</time></trkpt><trkpt lat="42.63809082930329" lon="-1.3418551267592245"><ele>517.0</ele><time>2026-03-31T12:27:39Z</time></trkpt><trkpt lat="42.638313923397156" lon="-1.3418309986642778"><ele>517.0</ele><time>2026-03-31T12:27:40Z</time></trkpt><trkpt lat="42.638527050008314" lon="-1.3417983506848934"><ele>517.0</ele><time>2026-03-31T12:27:41Z</time></trkpt><trkpt lat="42.63872366557004" lon="-1.341765522841882"><ele>515.3333333333334</ele><time>2026-03-31T12:27:42Z</time></trkpt><trkpt lat="42.638914567072035" lon="-1.3417353687883928"><ele>513.6666666666666</ele><time>2026-03-31T12:27:43Z</time></trkpt><trkpt lat="42.639074628083776" lon="-1.3416714611169793"><ele>512.0</ele><time>2026-03-31T12:27:44Z</time></trkpt><trkpt lat="42.63921543576791" lon="-1.3415708725973177"><ele>512.0</ele><time>2026-03-31T12:27:45Z</time></trkpt><trkpt lat="42.63933643139429" lon="-1.341453949478358"><ele>512.0</ele><time>2026-03-31T12:27:46Z</time></trkpt><trkpt lat="42.63944219401757" lon="-1.341346749213538"><ele>512.0</ele><time>2026-03-31T12:27:47Z</time></trkpt><trkpt lat="42.63951672673499" lon="-1.341235196835099"><ele>512.0</ele><time>2026-03-31T12:27:48Z</time></trkpt><trkpt lat="42.639504539302706" lon="-1.3410516131903811"><ele>510.8</ele><time>2026-03-31T12:27:49Z</time></trkpt><trkpt lat="42.639528219886" lon="-1.3408849998553747"><ele>509.6</ele><time>2026-03-31T12:27:50Z</time></trkpt><trkpt lat="42.63953817420727" lon="-1.340721444752578"><ele>508.40000000000003</ele><time>2026-03-31T12:27:51Z</time></trkpt><trkpt lat="42.63960724680274" lon="-1.3406174041250776"><ele>507.20000000000005</ele><time>2026-03-31T12:27:52Z</time></trkpt><trkpt lat="42.63967960547939" lon="-1.3405233394276836"><ele>506.0</ele><time>2026-03-31T12:27:53Z</time></trkpt><trkpt lat="42.63958747198572" lon="-1.3402101469621719"><ele>505.66666666666663</ele><time>2026-03-31T12:27:54Z</time></trkpt><trkpt lat="42.639545532062606" lon="-1.3399842628489613"><ele>505.33333333333337</ele><time>2026-03-31T12:27:55Z</time></trkpt><trkpt lat="42.639513444522656" lon="-1.339788505033708"><ele>505.0</ele><time>2026-03-31T12:27:56Z</time></trkpt><trkpt lat="42.63952407002602" lon="-1.3396037228815785"><ele>504.33333333333337</ele><time>2026-03-31T12:27:57Z</time></trkpt><trkpt lat="42.639571297847624" lon="-1.339416401529155"><ele>503.66666666666663</ele><time>2026-03-31T12:27:58Z</time></trkpt><trkpt lat="42.639664226030824" lon="-1.3392514910861382"><ele>503.0</ele><time>2026-03-31T12:27:59Z</time></trkpt><trkpt lat="42.63979966745458" lon="-1.3391041058871664"><ele>503.0</ele><time>2026-03-31T12:28:00Z</time></trkpt><trkpt lat="42.63996001255044" lon="-1.3389792508704241"><ele>503.0</ele><time>2026-03-31T12:28:01Z</time></trkpt><trkpt lat="42.640136771689015" lon="-1.3388687684270808"><ele>503.0</ele><time>2026-03-31T12:28:02Z</time></trkpt><trkpt lat="42.64031309687539" lon="-1.3387640896626856"><ele>501.66666666666663</ele><time>2026-03-31T12:28:03Z</time></trkpt><trkpt lat="42.640476904937614" lon="-1.3386508474808572"><ele>500.33333333333337</ele><time>2026-03-31T12:28:04Z</time></trkpt><trkpt lat="42.64062464390785" lon="-1.3385465082206696"><ele>499.0</ele><time>2026-03-31T12:28:05Z</time></trkpt><trkpt lat="42.64076085726003" lon="-1.3384681575458512"><ele>499.0</ele><time>2026-03-31T12:28:06Z</time></trkpt><trkpt lat="42.64089106195641" lon="-1.3383984129330182"><ele>499.0</ele><time>2026-03-31T12:28:07Z</time></trkpt><trkpt lat="42.64101221103413" lon="-1.338328081481003"><ele>499.0</ele><time>2026-03-31T12:28:08Z</time></trkpt><trkpt lat="42.64111362871494" lon="-1.338230167914689"><ele>499.0</ele><time>2026-03-31T12:28:09Z</time></trkpt><trkpt lat="42.64120298303742" lon="-1.3380998745322115"><ele>497.6666666666667</ele><time>2026-03-31T12:28:10Z</time></trkpt><trkpt lat="42.641316627777755" lon="-1.3379944850656549"><ele>496.33333333333337</ele><time>2026-03-31T12:28:11Z</time></trkpt><trkpt lat="42.64146860702874" lon="-1.3379347247559645"><ele>495.0</ele><time>2026-03-31T12:28:12Z</time></trkpt><trkpt lat="42.64163313099676" lon="-1.3379336836885225"><ele>495.0</ele><time>2026-03-31T12:28:13Z</time></trkpt><trkpt lat="42.641794256299896" lon="-1.3380145187757444"><ele>495.0</ele><time>2026-03-31T12:28:14Z</time></trkpt><trkpt lat="42.64195621963046" lon="-1.337991367906836"><ele>495.0</ele><time>2026-03-31T12:28:15Z</time></trkpt><trkpt lat="42.64210790691499" lon="-1.3379168585718113"><ele>495.33333333333337</ele><time>2026-03-31T12:28:16Z</time></trkpt><trkpt lat="42.642253524766" lon="-1.3377663824994572"><ele>495.6666666666667</ele><time>2026-03-31T12:28:17Z</time></trkpt><trkpt lat="42.642410232870034" lon="-1.3375622846593023"><ele>496.0</ele><time>2026-03-31T12:28:18Z</time></trkpt><trkpt lat="42.642580393304264" lon="-1.3373448875315836"><ele>494.5</ele><time>2026-03-31T12:28:19Z</time></trkpt><trkpt lat="42.64276012662043" lon="-1.337123006237409"><ele>493.0</ele><time>2026-03-31T12:28:20Z</time></trkpt><trkpt lat="42.64293239617058" lon="-1.336897310423818"><ele>493.0</ele><time>2026-03-31T12:28:21Z</time></trkpt><trkpt lat="42.64309948897294" lon="-1.3366617501815268"><ele>493.0</ele><time>2026-03-31T12:28:22Z</time></trkpt><trkpt lat="42.643276672735034" lon="-1.336427407997414"><ele>491.0</ele><time>2026-03-31T12:28:23Z</time></trkpt><trkpt lat="42.643464739855474" lon="-1.336183619074411"><ele>489.0</ele><time>2026-03-31T12:28:24Z</time></trkpt><trkpt lat="42.643648773691666" lon="-1.3359274253807754"><ele>489.0</ele><time>2026-03-31T12:28:25Z</time></trkpt><trkpt lat="42.64383156510486" lon="-1.3356670836190712"><ele>489.0</ele><time>2026-03-31T12:28:26Z</time></trkpt><trkpt lat="42.644021180552734" lon="-1.3354147558380096"><ele>487.0</ele><time>2026-03-31T12:28:27Z</time></trkpt><trkpt lat="42.6442098341063" lon="-1.3351670004461078"><ele>485.0</ele><time>2026-03-31T12:28:28Z</time></trkpt><trkpt lat="42.644390852073464" lon="-1.3349149886089742"><ele>484.0</ele><time>2026-03-31T12:28:29Z</time></trkpt><trkpt lat="42.64457366663503" lon="-1.3346627435593517"><ele>483.0</ele><time>2026-03-31T12:28:30Z</time></trkpt><trkpt lat="42.64475617463131" lon="-1.3344158371099388"><ele>483.0</ele><time>2026-03-31T12:28:31Z</time></trkpt><trkpt lat="42.64493475589086" lon="-1.3341648280615996"><ele>483.0</ele><time>2026-03-31T12:28:32Z</time></trkpt><trkpt lat="42.645114645613994" lon="-1.3339230651312246"><ele>482.0</ele><time>2026-03-31T12:28:33Z</time></trkpt><trkpt lat="42.64530338438128" lon="-1.3336869704377214"><ele>481.0</ele><time>2026-03-31T12:28:34Z</time></trkpt><trkpt lat="42.64548937890699" lon="-1.333443232635478"><ele>481.0</ele><time>2026-03-31T12:28:35Z</time></trkpt><trkpt lat="42.645668869336525" lon="-1.333194217254932"><ele>481.0</ele><time>2026-03-31T12:28:36Z</time></trkpt><trkpt lat="42.645847593638514" lon="-1.3329532584811121"><ele>480.5</ele><time>2026-03-31T12:28:37Z</time></trkpt><trkpt lat="42.646026723081086" lon="-1.3327206974323944"><ele>480.0</ele><time>2026-03-31T12:28:38Z</time></trkpt><trkpt lat="42.64619894736314" lon="-1.3324836135608127"><ele>480.0</ele><time>2026-03-31T12:28:39Z</time></trkpt><trkpt lat="42.64637360003172" lon="-1.3322543946839287"><ele>480.0</ele><time>2026-03-31T12:28:40Z</time></trkpt><trkpt lat="42.64656040658059" lon="-1.3320510777874606"><ele>478.5</ele><time>2026-03-31T12:28:41Z</time></trkpt><trkpt lat="42.646767261587584" lon="-1.3318746058846544"><ele>477.0</ele><time>2026-03-31T12:28:42Z</time></trkpt><trkpt lat="42.64700429696047" lon="-1.3317164936843526"><ele>474.0</ele><time>2026-03-31T12:28:43Z</time></trkpt><trkpt lat="42.64725087406297" lon="-1.3315895972210536"><ele>471.0</ele><time>2026-03-31T12:28:44Z</time></trkpt><trkpt lat="42.64750037779884" lon="-1.331472143732772"><ele>470.0</ele><time>2026-03-31T12:28:45Z</time></trkpt><trkpt lat="42.64775260527051" lon="-1.3313475846151415"><ele>469.0</ele><time>2026-03-31T12:28:46Z</time></trkpt><trkpt lat="42.6480059342495" lon="-1.3312144550919345"><ele>469.0</ele><time>2026-03-31T12:28:47Z</time></trkpt><trkpt lat="42.64825306504716" lon="-1.3310808582395686"><ele>469.0</ele><time>2026-03-31T12:28:48Z</time></trkpt><trkpt lat="42.64850803770745" lon="-1.3309568840103538"><ele>465.0</ele><time>2026-03-31T12:28:49Z</time></trkpt><trkpt lat="42.648754661393376" lon="-1.3308409735421016"><ele>461.0</ele><time>2026-03-31T12:28:50Z</time></trkpt><trkpt lat="42.648988697686924" lon="-1.3307252258523807"><ele>461.0</ele><time>2026-03-31T12:28:51Z</time></trkpt><trkpt lat="42.64920953484912" lon="-1.3306091701760332"><ele>461.0</ele><time>2026-03-31T12:28:52Z</time></trkpt><trkpt lat="42.649419533643545" lon="-1.3304790041909498"><ele>458.5</ele><time>2026-03-31T12:28:53Z</time></trkpt><trkpt lat="42.64961918173081" lon="-1.330300354480057"><ele>456.0</ele><time>2026-03-31T12:28:54Z</time></trkpt><trkpt lat="42.64979816581263" lon="-1.3300786257136687"><ele>456.0</ele><time>2026-03-31T12:28:55Z</time></trkpt><trkpt lat="42.649965295737815" lon="-1.3298139310023982"><ele>456.0</ele><time>2026-03-31T12:28:56Z</time></trkpt><trkpt lat="42.650109901838" lon="-1.3295120994665042"><ele>456.5</ele><time>2026-03-31T12:28:57Z</time></trkpt><trkpt lat="42.650217927827114" lon="-1.329187957746421"><ele>457.0</ele><time>2026-03-31T12:28:58Z</time></trkpt><trkpt lat="42.65028634896238" lon="-1.3288447093131217"><ele>451.0</ele><time>2026-03-31T12:28:59Z</time></trkpt><trkpt lat="42.650319277811484" lon="-1.3284952283857552"><ele>445.0</ele><time>2026-03-31T12:29:00Z</time></trkpt><trkpt lat="42.650322037677675" lon="-1.3281395033998389"><ele>449.0</ele><time>2026-03-31T12:29:01Z</time></trkpt><trkpt lat="42.65029101072833" lon="-1.327774959087407"><ele>453.0</ele><time>2026-03-31T12:29:02Z</time></trkpt><trkpt lat="42.65026351447027" lon="-1.327400433461613"><ele>452.5</ele><time>2026-03-31T12:29:03Z</time></trkpt><trkpt lat="42.65025099973425" lon="-1.3270153156356153"><ele>452.0</ele><time>2026-03-31T12:29:04Z</time></trkpt><trkpt lat="42.65024286033233" lon="-1.32661242500526"><ele>452.0</ele><time>2026-03-31T12:29:05Z</time></trkpt><trkpt lat="42.65022835181046" lon="-1.3262299444760928"><ele>452.0</ele><time>2026-03-31T12:29:06Z</time></trkpt><trkpt lat="42.65021094744026" lon="-1.3258644876625076"><ele>450.5</ele><time>2026-03-31T12:29:07Z</time></trkpt><trkpt lat="42.65019917869936" lon="-1.325509299623488"><ele>449.0</ele><time>2026-03-31T12:29:08Z</time></trkpt><trkpt lat="42.65018888829836" lon="-1.325147120667585"><ele>449.0</ele><time>2026-03-31T12:29:09Z</time></trkpt><trkpt lat="42.65017367556389" lon="-1.3247887340386275"><ele>449.0</ele><time>2026-03-31T12:29:10Z</time></trkpt><trkpt lat="42.650152962359414" lon="-1.324425963637261"><ele>447.0</ele><time>2026-03-31T12:29:11Z</time></trkpt><trkpt lat="42.65013852517746" lon="-1.3240710338456205"><ele>445.0</ele><time>2026-03-31T12:29:12Z</time></trkpt><trkpt lat="42.65011658031655" lon="-1.3237147783013317"><ele>442.0</ele><time>2026-03-31T12:29:13Z</time></trkpt><trkpt lat="42.65007785763108" lon="-1.3233546583581748"><ele>439.0</ele><time>2026-03-31T12:29:14Z</time></trkpt><trkpt lat="42.65001608473455" lon="-1.322973591197417"><ele>438.0</ele><time>2026-03-31T12:29:15Z</time></trkpt><trkpt lat="42.64992247876297" lon="-1.3225864281899335"><ele>437.0</ele><time>2026-03-31T12:29:16Z</time></trkpt><trkpt lat="42.649805708850124" lon="-1.3221953427347588"><ele>437.0</ele><time>2026-03-31T12:29:17Z</time></trkpt><trkpt lat="42.649687040437044" lon="-1.3218147049774465"><ele>437.0</ele><time>2026-03-31T12:29:18Z</time></trkpt><trkpt lat="42.649578399561356" lon="-1.3214516222311576"><ele>435.5</ele><time>2026-03-31T12:29:19Z</time></trkpt><trkpt lat="42.64947332983426" lon="-1.321098064054568"><ele>434.0</ele><time>2026-03-31T12:29:20Z</time></trkpt><trkpt lat="42.64936918668379" lon="-1.3207478037748783"><ele>434.0</ele><time>2026-03-31T12:29:21Z</time></trkpt><trkpt lat="42.64927617508343" lon="-1.3204075602544174"><ele>434.0</ele><time>2026-03-31T12:29:22Z</time></trkpt><trkpt lat="42.64919470482007" lon="-1.3200804089639921"><ele>434.0</ele><time>2026-03-31T12:29:23Z</time></trkpt><trkpt lat="42.64911261682922" lon="-1.3197819436781113"><ele>434.0</ele><time>2026-03-31T12:29:24Z</time></trkpt><trkpt lat="42.649033388082145" lon="-1.3194906170697032"><ele>434.0</ele><time>2026-03-31T12:29:25Z</time></trkpt><trkpt lat="42.648985456772465" lon="-1.3191569885627112"><ele>434.0</ele><time>2026-03-31T12:29:26Z</time></trkpt><trkpt lat="42.648985351803994" lon="-1.3187832248554403"><ele>432.5</ele><time>2026-03-31T12:29:27Z</time></trkpt><trkpt lat="42.64902758895773" lon="-1.3183850332448572"><ele>431.0</ele><time>2026-03-31T12:29:28Z</time></trkpt><trkpt lat="42.64909301215009" lon="-1.3180208885751952"><ele>429.5</ele><time>2026-03-31T12:29:29Z</time></trkpt><trkpt lat="42.64915493693501" lon="-1.3176719736036016"><ele>428.0</ele><time>2026-03-31T12:29:30Z</time></trkpt><trkpt lat="42.649200808434344" lon="-1.3173287561127547"><ele>427.0</ele><time>2026-03-31T12:29:31Z</time></trkpt><trkpt lat="42.64923733422033" lon="-1.316992591170682"><ele>426.0</ele><time>2026-03-31T12:29:32Z</time></trkpt><trkpt lat="42.6492762935752" lon="-1.31665368841208"><ele>425.0</ele><time>2026-03-31T12:29:33Z</time></trkpt><trkpt lat="42.64931303190104" lon="-1.3162981921004786"><ele>424.0</ele><time>2026-03-31T12:29:34Z</time></trkpt><trkpt lat="42.649344567355776" lon="-1.3159450384935931"><ele>424.0</ele><time>2026-03-31T12:29:35Z</time></trkpt><trkpt lat="42.64937073541958" lon="-1.315595515244533"><ele>424.0</ele><time>2026-03-31T12:29:36Z</time></trkpt><trkpt lat="42.64939346092784" lon="-1.3152640519043124"><ele>423.5</ele><time>2026-03-31T12:29:37Z</time></trkpt><trkpt lat="42.64942199400374" lon="-1.3149409187183085"><ele>423.0</ele><time>2026-03-31T12:29:38Z</time></trkpt><trkpt lat="42.649469796914886" lon="-1.3146173816637639"><ele>424.0</ele><time>2026-03-31T12:29:39Z</time></trkpt><trkpt lat="42.6495318395793" lon="-1.3143070518540796"><ele>425.0</ele><time>2026-03-31T12:29:40Z</time></trkpt><trkpt lat="42.64959525355269" lon="-1.3139903963955797"><ele>425.5</ele><time>2026-03-31T12:29:41Z</time></trkpt><trkpt lat="42.649645773311256" lon="-1.3136937222055354"><ele>426.0</ele><time>2026-03-31T12:29:42Z</time></trkpt><trkpt lat="42.649702679657786" lon="-1.3133895932099078"><ele>426.0</ele><time>2026-03-31T12:29:43Z</time></trkpt><trkpt lat="42.649758563688685" lon="-1.3131032577302852"><ele>426.0</ele><time>2026-03-31T12:29:44Z</time></trkpt><trkpt lat="42.649809190954755" lon="-1.312835142749007"><ele>426.0</ele><time>2026-03-31T12:29:45Z</time></trkpt><trkpt lat="42.64985317987051" lon="-1.3125937161238905"><ele>426.0</ele><time>2026-03-31T12:29:46Z</time></trkpt><trkpt lat="42.6498916177424" lon="-1.3123742407502021"><ele>426.0</ele><time>2026-03-31T12:29:47Z</time></trkpt><trkpt lat="42.64993287320397" lon="-1.3121729919249272"><ele>426.0</ele><time>2026-03-31T12:29:48Z</time></trkpt><trkpt lat="42.64996974156742" lon="-1.3119975265532708"><ele>426.4</ele><time>2026-03-31T12:29:49Z</time></trkpt><trkpt lat="42.650007272130814" lon="-1.31183797922278"><ele>426.8</ele><time>2026-03-31T12:29:50Z</time></trkpt><trkpt lat="42.650040458171944" lon="-1.311694637618073"><ele>427.19999999999993</ele><time>2026-03-31T12:29:51Z</time></trkpt><trkpt lat="42.65007771495683" lon="-1.3115675362731254"><ele>427.59999999999997</ele><time>2026-03-31T12:29:52Z</time></trkpt><trkpt lat="42.65012625427552" lon="-1.311429245677887"><ele>428.0</ele><time>2026-03-31T12:29:53Z</time></trkpt><trkpt lat="42.65020267578072" lon="-1.3112804737717307"><ele>429.0</ele><time>2026-03-31T12:29:54Z</time></trkpt><trkpt lat="42.65029545594016" lon="-1.3111317090411287"><ele>430.0</ele><time>2026-03-31T12:29:55Z</time></trkpt><trkpt lat="42.65039918954054" lon="-1.3109835769937663"><ele>431.0</ele><time>2026-03-31T12:29:56Z</time></trkpt><trkpt lat="42.65051383614108" lon="-1.3108448096760794"><ele>432.0</ele><time>2026-03-31T12:29:57Z</time></trkpt><trkpt lat="42.65064944674228" lon="-1.310729876154583"><ele>432.0</ele><time>2026-03-31T12:29:58Z</time></trkpt><trkpt lat="42.65080668554486" lon="-1.3106270752469407"><ele>432.0</ele><time>2026-03-31T12:29:59Z</time></trkpt><trkpt lat="42.65097537247303" lon="-1.3105420310429607"><ele>432.0</ele><time>2026-03-31T12:30:00Z</time></trkpt><trkpt lat="42.65115708477623" lon="-1.3104823686934475"><ele>436.0</ele><time>2026-03-31T12:30:01Z</time></trkpt><trkpt lat="42.651344438709195" lon="-1.3104360575067309"><ele>440.0</ele><time>2026-03-31T12:30:02Z</time></trkpt><trkpt lat="42.6515404253861" lon="-1.3103849686516547"><ele>444.0</ele><time>2026-03-31T12:30:03Z</time></trkpt><trkpt lat="42.651742319582304" lon="-1.31033212091365"><ele>444.0</ele><time>2026-03-31T12:30:04Z</time></trkpt><trkpt lat="42.65194407087323" lon="-1.3102716126793836"><ele>444.0</ele><time>2026-03-31T12:30:05Z</time></trkpt><trkpt lat="42.652145218597234" lon="-1.3102137038372164"><ele>444.0</ele><time>2026-03-31T12:30:06Z</time></trkpt><trkpt lat="42.652361345321125" lon="-1.3101569386173353"><ele>441.33333333333337</ele><time>2026-03-31T12:30:07Z</time></trkpt><trkpt lat="42.652580863830686" lon="-1.3100944725630312"><ele>438.6666666666667</ele><time>2026-03-31T12:30:08Z</time></trkpt><trkpt lat="42.65279073938025" lon="-1.3100276998678204"><ele>436.0</ele><time>2026-03-31T12:30:09Z</time></trkpt><trkpt lat="42.65300942922244" lon="-1.3099523896958756"><ele>435.5</ele><time>2026-03-31T12:30:10Z</time></trkpt><trkpt lat="42.65322372846257" lon="-1.309861768468757"><ele>435.0</ele><time>2026-03-31T12:30:11Z</time></trkpt><trkpt lat="42.65342675763291" lon="-1.309727501882994"><ele>435.0</ele><time>2026-03-31T12:30:12Z</time></trkpt><trkpt lat="42.6536177128811" lon="-1.3095535613663878"><ele>435.0</ele><time>2026-03-31T12:30:13Z</time></trkpt><trkpt lat="42.65379776634437" lon="-1.3093511230913166"><ele>435.0</ele><time>2026-03-31T12:30:14Z</time></trkpt><trkpt lat="42.653962120078326" lon="-1.3091173906875013"><ele>435.0</ele><time>2026-03-31T12:30:15Z</time></trkpt><trkpt lat="42.65410031449274" lon="-1.3088550730811581"><ele>438.0</ele><time>2026-03-31T12:30:16Z</time></trkpt><trkpt lat="42.65420824529265" lon="-1.3085769232265947"><ele>441.0</ele><time>2026-03-31T12:30:17Z</time></trkpt><trkpt lat="42.654289488741064" lon="-1.3082756835916072"><ele>445.0</ele><time>2026-03-31T12:30:18Z</time></trkpt><trkpt lat="42.65435387210285" lon="-1.307958807337614"><ele>449.0</ele><time>2026-03-31T12:30:19Z</time></trkpt><trkpt lat="42.65441198720162" lon="-1.3076398545935668"><ele>444.5</ele><time>2026-03-31T12:30:20Z</time></trkpt><trkpt lat="42.654458742028375" lon="-1.3073221090295244"><ele>440.0</ele><time>2026-03-31T12:30:21Z</time></trkpt><trkpt lat="42.654494882348835" lon="-1.3070316920680782"><ele>440.0</ele><time>2026-03-31T12:30:22Z</time></trkpt><trkpt lat="42.654519400495886" lon="-1.3067594358990107"><ele>440.0</ele><time>2026-03-31T12:30:23Z</time></trkpt><trkpt lat="42.65453380793136" lon="-1.3065033761409992"><ele>440.0</ele><time>2026-03-31T12:30:24Z</time></trkpt><trkpt lat="42.65454594537181" lon="-1.3062625742259317"><ele>441.0</ele><time>2026-03-31T12:30:25Z</time></trkpt><trkpt lat="42.65456974349887" lon="-1.3060295053886932"><ele>442.0</ele><time>2026-03-31T12:30:26Z</time></trkpt><trkpt lat="42.654617601977286" lon="-1.3058017011134215"><ele>443.0</ele><time>2026-03-31T12:30:27Z</time></trkpt><trkpt lat="42.654677506055044" lon="-1.3055884893893344"><ele>443.5</ele><time>2026-03-31T12:30:28Z</time></trkpt><trkpt lat="42.65473487712811" lon="-1.305396186871189"><ele>444.0</ele><time>2026-03-31T12:30:29Z</time></trkpt><trkpt lat="42.654796156058474" lon="-1.3052248912535263"><ele>444.5</ele><time>2026-03-31T12:30:30Z</time></trkpt><trkpt lat="42.654869507207835" lon="-1.3050727955697679"><ele>445.0</ele><time>2026-03-31T12:30:31Z</time></trkpt><trkpt lat="42.65494416128045" lon="-1.3049364116077193"><ele>445.0</ele><time>2026-03-31T12:30:32Z</time></trkpt><trkpt lat="42.6550166414759" lon="-1.3048154330734092"><ele>445.0</ele><time>2026-03-31T12:30:33Z</time></trkpt><trkpt lat="42.65508675392085" lon="-1.3047067991745598"><ele>445.0</ele><time>2026-03-31T12:30:34Z</time></trkpt><trkpt lat="42.65515246468581" lon="-1.304598281163837"><ele>445.0</ele><time>2026-03-31T12:30:35Z</time></trkpt><trkpt lat="42.65520881374161" lon="-1.3045070282719535"><ele>445.0</ele><time>2026-03-31T12:30:36Z</time></trkpt><trkpt lat="42.65526483567244" lon="-1.3044202299683711"><ele>444.6</ele><time>2026-03-31T12:30:37Z</time></trkpt><trkpt lat="42.655327150105784" lon="-1.304329122132892"><ele>444.2</ele><time>2026-03-31T12:30:38Z</time></trkpt><trkpt lat="42.655376767401116" lon="-1.304242996443809"><ele>443.79999999999995</ele><time>2026-03-31T12:30:39Z</time></trkpt><trkpt lat="42.655442420899504" lon="-1.304131582085771"><ele>443.4</ele><time>2026-03-31T12:30:40Z</time></trkpt><trkpt lat="42.65551073202677" lon="-1.3039849609781518"><ele>443.0</ele><time>2026-03-31T12:30:41Z</time></trkpt><trkpt lat="42.655573195537016" lon="-1.3038372275200807"><ele>442.75</ele><time>2026-03-31T12:30:42Z</time></trkpt><trkpt lat="42.65563480418682" lon="-1.3036877851513071"><ele>442.5</ele><time>2026-03-31T12:30:43Z</time></trkpt><trkpt lat="42.65569458517214" lon="-1.3035343220717606"><ele>442.25</ele><time>2026-03-31T12:30:44Z</time></trkpt><trkpt lat="42.655752606666184" lon="-1.3033737489730237"><ele>442.0</ele><time>2026-03-31T12:30:45Z</time></trkpt><trkpt lat="42.65580503319143" lon="-1.3032085186222067"><ele>442.0</ele><time>2026-03-31T12:30:46Z</time></trkpt><trkpt lat="42.65586272642204" lon="-1.3030430462113214"><ele>442.0</ele><time>2026-03-31T12:30:47Z</time></trkpt><trkpt lat="42.65591761473989" lon="-1.3028928862477733"><ele>442.0</ele><time>2026-03-31T12:30:48Z</time></trkpt><trkpt lat="42.655963892730036" lon="-1.3027523669174332"><ele>442.0</ele><time>2026-03-31T12:30:49Z</time></trkpt><trkpt lat="42.65601564652283" lon="-1.3026134567186995"><ele>442.0</ele><time>2026-03-31T12:30:50Z</time></trkpt><trkpt lat="42.65607649753959" lon="-1.3024551197419802"><ele>442.0</ele><time>2026-03-31T12:30:51Z</time></trkpt><trkpt lat="42.65615179748568" lon="-1.3022620795143827"><ele>442.0</ele><time>2026-03-31T12:30:52Z</time></trkpt><trkpt lat="42.65622802668651" lon="-1.3020760666049878"><ele>442.0</ele><time>2026-03-31T12:30:53Z</time></trkpt><trkpt lat="42.656305453069635" lon="-1.3018839336314114"><ele>442.6666666666667</ele><time>2026-03-31T12:30:54Z</time></trkpt><trkpt lat="42.65637987828658" lon="-1.3016887184747465"><ele>443.33333333333337</ele><time>2026-03-31T12:30:55Z</time></trkpt><trkpt lat="42.65644450630946" lon="-1.301481383296362"><ele>444.0</ele><time>2026-03-31T12:30:56Z</time></trkpt><trkpt lat="42.656532117163984" lon="-1.3012728936523978"><ele>444.0</ele><time>2026-03-31T12:30:57Z</time></trkpt><trkpt lat="42.65660954010086" lon="-1.3010504170401893"><ele>444.0</ele><time>2026-03-31T12:30:58Z</time></trkpt><trkpt lat="42.65669677089191" lon="-1.3008258886875783"><ele>444.0</ele><time>2026-03-31T12:30:59Z</time></trkpt><trkpt lat="42.65678522537352" lon="-1.3006079578627756"><ele>444.0</ele><time>2026-03-31T12:31:00Z</time></trkpt><trkpt lat="42.65686297490427" lon="-1.300394055504146"><ele>444.0</ele><time>2026-03-31T12:31:01Z</time></trkpt><trkpt lat="42.656939847841635" lon="-1.3001925601817474"><ele>444.0</ele><time>2026-03-31T12:31:02Z</time></trkpt><trkpt lat="42.65700775865799" lon="-1.3000077583234622"><ele>444.0</ele><time>2026-03-31T12:31:03Z</time></trkpt><trkpt lat="42.65707659390037" lon="-1.2998203730083606"><ele>444.0</ele><time>2026-03-31T12:31:04Z</time></trkpt><trkpt lat="42.65715370152765" lon="-1.2996126435087134"><ele>444.0</ele><time>2026-03-31T12:31:05Z</time></trkpt><trkpt lat="42.65723313820532" lon="-1.2994026424235678"><ele>444.0</ele><time>2026-03-31T12:31:06Z</time></trkpt><trkpt lat="42.65730448628883" lon="-1.2992097531279074"><ele>444.0</ele><time>2026-03-31T12:31:07Z</time></trkpt><trkpt lat="42.657373907134186" lon="-1.2990283167989611"><ele>444.0</ele><time>2026-03-31T12:31:08Z</time></trkpt><trkpt lat="42.65744345268851" lon="-1.2988422446637096"><ele>444.33333333333337</ele><time>2026-03-31T12:31:09Z</time></trkpt><trkpt lat="42.65751428288513" lon="-1.2986395407226727"><ele>444.6666666666667</ele><time>2026-03-31T12:31:10Z</time></trkpt><trkpt lat="42.65758869959314" lon="-1.298426240705056"><ele>445.0</ele><time>2026-03-31T12:31:11Z</time></trkpt><trkpt lat="42.65766147525463" lon="-1.2982063734730263"><ele>446.0</ele><time>2026-03-31T12:31:12Z</time></trkpt><trkpt lat="42.657720873811854" lon="-1.2979738363304352"><ele>447.0</ele><time>2026-03-31T12:31:13Z</time></trkpt><trkpt lat="42.657750471179995" lon="-1.2977247437047112"><ele>448.0</ele><time>2026-03-31T12:31:14Z</time></trkpt><trkpt lat="42.657752063379384" lon="-1.2974594197381606"><ele>448.0</ele><time>2026-03-31T12:31:15Z</time></trkpt><trkpt lat="42.65772872935383" lon="-1.297181329362414"><ele>448.0</ele><time>2026-03-31T12:31:16Z</time></trkpt><trkpt lat="42.657682710789516" lon="-1.2968911727488708"><ele>448.0</ele><time>2026-03-31T12:31:17Z</time></trkpt><trkpt lat="42.65762612139215" lon="-1.2965964666335243"><ele>448.5</ele><time>2026-03-31T12:31:18Z</time></trkpt><trkpt lat="42.657579191627036" lon="-1.2962870681989584"><ele>449.0</ele><time>2026-03-31T12:31:19Z</time></trkpt><trkpt lat="42.65754280480284" lon="-1.29596960085423"><ele>449.0</ele><time>2026-03-31T12:31:20Z</time></trkpt><trkpt lat="42.65749955977662" lon="-1.2956536278634894"><ele>449.0</ele><time>2026-03-31T12:31:21Z</time></trkpt><trkpt lat="42.65745258719485" lon="-1.2953355990142033"><ele>449.5</ele><time>2026-03-31T12:31:22Z</time></trkpt><trkpt lat="42.657415093910544" lon="-1.2950127973199075"><ele>450.0</ele><time>2026-03-31T12:31:23Z</time></trkpt><trkpt lat="42.657378399710545" lon="-1.2946945554046458"><ele>451.0</ele><time>2026-03-31T12:31:24Z</time></trkpt><trkpt lat="42.65733226622978" lon="-1.2943791015710258"><ele>452.0</ele><time>2026-03-31T12:31:25Z</time></trkpt><trkpt lat="42.657287499003765" lon="-1.2940629750151638"><ele>452.5</ele><time>2026-03-31T12:31:26Z</time></trkpt><trkpt lat="42.657243036923916" lon="-1.293749701364851"><ele>453.0</ele><time>2026-03-31T12:31:27Z</time></trkpt><trkpt lat="42.65719064296223" lon="-1.2934357922192254"><ele>453.0</ele><time>2026-03-31T12:31:28Z</time></trkpt><trkpt lat="42.657132621663536" lon="-1.2931322617701466"><ele>453.0</ele><time>2026-03-31T12:31:29Z</time></trkpt><trkpt lat="42.657065903826684" lon="-1.292850579694774"><ele>453.0</ele><time>2026-03-31T12:31:30Z</time></trkpt><trkpt lat="42.656981401809915" lon="-1.292589832201548"><ele>454.33333333333337</ele><time>2026-03-31T12:31:31Z</time></trkpt><trkpt lat="42.656888829637566" lon="-1.292344096032605"><ele>455.6666666666667</ele><time>2026-03-31T12:31:32Z</time></trkpt><trkpt lat="42.65680990312133" lon="-1.2920834941489796"><ele>457.0</ele><time>2026-03-31T12:31:33Z</time></trkpt><trkpt lat="42.65674737442997" lon="-1.2917902492516489"><ele>457.0</ele><time>2026-03-31T12:31:34Z</time></trkpt><trkpt lat="42.65669523939161" lon="-1.2914761499419203"><ele>457.0</ele><time>2026-03-31T12:31:35Z</time></trkpt><trkpt lat="42.65665092617258" lon="-1.2911528338098779"><ele>456.5</ele><time>2026-03-31T12:31:36Z</time></trkpt><trkpt lat="42.65661114534494" lon="-1.2908283069060422"><ele>456.0</ele><time>2026-03-31T12:31:37Z</time></trkpt><trkpt lat="42.65656933142436" lon="-1.290488299387909"><ele>455.5</ele><time>2026-03-31T12:31:38Z</time></trkpt><trkpt lat="42.656524603435834" lon="-1.2901371877371428"><ele>455.0</ele><time>2026-03-31T12:31:39Z</time></trkpt><trkpt lat="42.65647797361245" lon="-1.2897807196456228"><ele>454.5</ele><time>2026-03-31T12:31:40Z</time></trkpt><trkpt lat="42.65643318756476" lon="-1.2894286927350118"><ele>454.0</ele><time>2026-03-31T12:31:41Z</time></trkpt><trkpt lat="42.65639007788469" lon="-1.2890764240638337"><ele>454.0</ele><time>2026-03-31T12:31:42Z</time></trkpt><trkpt lat="42.65634995625609" lon="-1.2887275340098132"><ele>454.0</ele><time>2026-03-31T12:31:43Z</time></trkpt><trkpt lat="42.65630730199644" lon="-1.2883842849995022"><ele>454.5</ele><time>2026-03-31T12:31:44Z</time></trkpt><trkpt lat="42.65626609370047" lon="-1.288054140913306"><ele>455.0</ele><time>2026-03-31T12:31:45Z</time></trkpt><trkpt lat="42.65623108052838" lon="-1.2877458523434477"><ele>455.0</ele><time>2026-03-31T12:31:46Z</time></trkpt><trkpt lat="42.65619943279323" lon="-1.2874584423465985"><ele>455.0</ele><time>2026-03-31T12:31:47Z</time></trkpt><trkpt lat="42.656179269412185" lon="-1.2871704904280319"><ele>455.0</ele><time>2026-03-31T12:31:48Z</time></trkpt><trkpt lat="42.6561899180521" lon="-1.2868773635809951"><ele>456.5</ele><time>2026-03-31T12:31:49Z</time></trkpt><trkpt lat="42.65624242541971" lon="-1.2865633755922892"><ele>458.0</ele><time>2026-03-31T12:31:50Z</time></trkpt><trkpt lat="42.65632779436591" lon="-1.286239437114788"><ele>458.0</ele><time>2026-03-31T12:31:51Z</time></trkpt><trkpt lat="42.65643491861875" lon="-1.2859095533466622"><ele>458.0</ele><time>2026-03-31T12:31:52Z</time></trkpt><trkpt lat="42.656540976288696" lon="-1.2855694549367855"><ele>452.5</ele><time>2026-03-31T12:31:53Z</time></trkpt><trkpt lat="42.65664954117666" lon="-1.285218976508157"><ele>447.0</ele><time>2026-03-31T12:31:54Z</time></trkpt><trkpt lat="42.65676766039046" lon="-1.2848788493976582"><ele>448.0</ele><time>2026-03-31T12:31:55Z</time></trkpt><trkpt lat="42.65685293653339" lon="-1.2845580224392283"><ele>449.0</ele><time>2026-03-31T12:31:56Z</time></trkpt><trkpt lat="42.657050772560105" lon="-1.2843048599922637"><ele>449.0</ele><time>2026-03-31T12:31:57Z</time></trkpt><trkpt lat="42.65722053010978" lon="-1.2840413913554474"><ele>449.0</ele><time>2026-03-31T12:31:58Z</time></trkpt><trkpt lat="42.65738800795878" lon="-1.2837755676754534"><ele>447.0</ele><time>2026-03-31T12:31:59Z</time></trkpt><trkpt lat="42.65754543990916" lon="-1.2834980122366042"><ele>445.0</ele><time>2026-03-31T12:32:00Z</time></trkpt><trkpt lat="42.65769356333448" lon="-1.283204701007749"><ele>447.0</ele><time>2026-03-31T12:32:01Z</time></trkpt><trkpt lat="42.657820427284776" lon="-1.2829065789777203"><ele>449.0</ele><time>2026-03-31T12:32:02Z</time></trkpt><trkpt lat="42.65792393885128" lon="-1.2825890907842241"><ele>451.0</ele><time>2026-03-31T12:32:03Z</time></trkpt><trkpt lat="42.65801060320001" lon="-1.2822495404656729"><ele>453.0</ele><time>2026-03-31T12:32:04Z</time></trkpt><trkpt lat="42.65810830325057" lon="-1.2818951145732345"><ele>453.0</ele><time>2026-03-31T12:32:05Z</time></trkpt><trkpt lat="42.65821831426826" lon="-1.2815516111181378"><ele>453.0</ele><time>2026-03-31T12:32:06Z</time></trkpt><trkpt lat="42.658326398124835" lon="-1.2812100685690588"><ele>455.5</ele><time>2026-03-31T12:32:07Z</time></trkpt><trkpt lat="42.658428399291836" lon="-1.280877382458621"><ele>458.0</ele><time>2026-03-31T12:32:08Z</time></trkpt><trkpt lat="42.65852531072221" lon="-1.28055544624978"><ele>458.5</ele><time>2026-03-31T12:32:09Z</time></trkpt><trkpt lat="42.65862664661227" lon="-1.2802371646819022"><ele>459.0</ele><time>2026-03-31T12:32:10Z</time></trkpt><trkpt lat="42.65872638701736" lon="-1.2799287286702785"><ele>461.0</ele><time>2026-03-31T12:32:11Z</time></trkpt><trkpt lat="42.658809765011235" lon="-1.2796223043343016"><ele>463.0</ele><time>2026-03-31T12:32:12Z</time></trkpt><trkpt lat="42.65887333389069" lon="-1.2793178818274409"><ele>463.0</ele><time>2026-03-31T12:32:13Z</time></trkpt><trkpt lat="42.65892098317951" lon="-1.2790208911312198"><ele>463.0</ele><time>2026-03-31T12:32:14Z</time></trkpt><trkpt lat="42.65896004769664" lon="-1.2787148726392312"><ele>465.0</ele><time>2026-03-31T12:32:15Z</time></trkpt><trkpt lat="42.65899762563348" lon="-1.2783914738269584"><ele>467.0</ele><time>2026-03-31T12:32:16Z</time></trkpt><trkpt lat="42.65903881701672" lon="-1.2780711696667195"><ele>469.0</ele><time>2026-03-31T12:32:17Z</time></trkpt><trkpt lat="42.659084027143386" lon="-1.2777677036609314"><ele>471.0</ele><time>2026-03-31T12:32:18Z</time></trkpt><trkpt lat="42.659131918695" lon="-1.2774686928073538"><ele>472.0</ele><time>2026-03-31T12:32:19Z</time></trkpt><trkpt lat="42.65918717239331" lon="-1.2771782942574836"><ele>473.0</ele><time>2026-03-31T12:32:20Z</time></trkpt><trkpt lat="42.65926094877941" lon="-1.276880618203488"><ele>473.0</ele><time>2026-03-31T12:32:21Z</time></trkpt><trkpt lat="42.65934749750327" lon="-1.2765913677306568"><ele>473.0</ele><time>2026-03-31T12:32:22Z</time></trkpt><trkpt lat="42.65945635652513" lon="-1.276311309079356"><ele>473.0</ele><time>2026-03-31T12:32:23Z</time></trkpt><trkpt lat="42.6595861468716" lon="-1.2760410566771243"><ele>473.0</ele><time>2026-03-31T12:32:24Z</time></trkpt><trkpt lat="42.659715002673366" lon="-1.275752517733948"><ele>474.0</ele><time>2026-03-31T12:32:25Z</time></trkpt><trkpt lat="42.65983617674647" lon="-1.275464958775986"><ele>475.0</ele><time>2026-03-31T12:32:26Z</time></trkpt><trkpt lat="42.65996746774088" lon="-1.2751745811601274"><ele>475.0</ele><time>2026-03-31T12:32:27Z</time></trkpt><trkpt lat="42.66010308363141" lon="-1.2748866937538719"><ele>475.0</ele><time>2026-03-31T12:32:28Z</time></trkpt><trkpt lat="42.66023683432938" lon="-1.2745942109617658"><ele>476.0</ele><time>2026-03-31T12:32:29Z</time></trkpt><trkpt lat="42.66036547442499" lon="-1.2742962417261594"><ele>477.0</ele><time>2026-03-31T12:32:30Z</time></trkpt><trkpt lat="42.66049350568043" lon="-1.2739976546347729"><ele>476.5</ele><time>2026-03-31T12:32:31Z</time></trkpt><trkpt lat="42.66062604984116" lon="-1.2737027119009314"><ele>476.0</ele><time>2026-03-31T12:32:32Z</time></trkpt><trkpt lat="42.66076133943674" lon="-1.2734137738108413"><ele>476.0</ele><time>2026-03-31T12:32:33Z</time></trkpt><trkpt lat="42.660897935737125" lon="-1.2731258194556805"><ele>476.0</ele><time>2026-03-31T12:32:34Z</time></trkpt><trkpt lat="42.661027323801434" lon="-1.272830475688029"><ele>476.5</ele><time>2026-03-31T12:32:35Z</time></trkpt><trkpt lat="42.661151082725596" lon="-1.2725369380893359"><ele>477.0</ele><time>2026-03-31T12:32:36Z</time></trkpt><trkpt lat="42.661286827116584" lon="-1.272257698622444"><ele>475.5</ele><time>2026-03-31T12:32:37Z</time></trkpt><trkpt lat="42.66144777416875" lon="-1.2720096845413136"><ele>474.0</ele><time>2026-03-31T12:32:38Z</time></trkpt><trkpt lat="42.66163681700923" lon="-1.271798424169413"><ele>474.0</ele><time>2026-03-31T12:32:39Z</time></trkpt><trkpt lat="42.66184808711555" lon="-1.2716251716102336"><ele>474.0</ele><time>2026-03-31T12:32:40Z</time></trkpt><trkpt lat="42.662072912205716" lon="-1.2714713251225056"><ele>472.5</ele><time>2026-03-31T12:32:41Z</time></trkpt><trkpt lat="42.66228426536548" lon="-1.271293402270076"><ele>471.0</ele><time>2026-03-31T12:32:42Z</time></trkpt><trkpt lat="42.662473496275446" lon="-1.2710696326501147"><ele>471.0</ele><time>2026-03-31T12:32:43Z</time></trkpt><trkpt lat="42.662642902360716" lon="-1.2708227161658634"><ele>471.0</ele><time>2026-03-31T12:32:44Z</time></trkpt><trkpt lat="42.66277814578185" lon="-1.2705423199501293"><ele>470.5</ele><time>2026-03-31T12:32:45Z</time></trkpt><trkpt lat="42.66287563896437" lon="-1.2702272125884106"><ele>470.0</ele><time>2026-03-31T12:32:46Z</time></trkpt><trkpt lat="42.66295039258483" lon="-1.2698991466243366"><ele>471.0</ele><time>2026-03-31T12:32:47Z</time></trkpt><trkpt lat="42.66300160074154" lon="-1.2695606481379929"><ele>472.0</ele><time>2026-03-31T12:32:48Z</time></trkpt><trkpt lat="42.6630415729808" lon="-1.2692149916074977"><ele>472.0</ele><time>2026-03-31T12:32:49Z</time></trkpt><trkpt lat="42.663093632199384" lon="-1.2688773509094913"><ele>472.0</ele><time>2026-03-31T12:32:50Z</time></trkpt><trkpt lat="42.6631598313029" lon="-1.268536829064123"><ele>472.0</ele><time>2026-03-31T12:32:51Z</time></trkpt><trkpt lat="42.66322037459158" lon="-1.2682002632599896"><ele>472.0</ele><time>2026-03-31T12:32:52Z</time></trkpt><trkpt lat="42.663279841937566" lon="-1.267864833322901"><ele>472.0</ele><time>2026-03-31T12:32:53Z</time></trkpt><trkpt lat="42.6633642583726" lon="-1.2675396910037025"><ele>472.0</ele><time>2026-03-31T12:32:54Z</time></trkpt><trkpt lat="42.66348393587608" lon="-1.2672208108698042"><ele>471.0</ele><time>2026-03-31T12:32:55Z</time></trkpt><trkpt lat="42.66363569941381" lon="-1.2669063004648973"><ele>470.0</ele><time>2026-03-31T12:32:56Z</time></trkpt><trkpt lat="42.66380686768268" lon="-1.2666055827670961"><ele>470.5</ele><time>2026-03-31T12:32:57Z</time></trkpt><trkpt lat="42.66398622006041" lon="-1.2663038642084712"><ele>471.0</ele><time>2026-03-31T12:32:58Z</time></trkpt><trkpt lat="42.664169112694964" lon="-1.266007125059393"><ele>471.0</ele><time>2026-03-31T12:32:59Z</time></trkpt><trkpt lat="42.66434519584194" lon="-1.2657132559917768"><ele>471.0</ele><time>2026-03-31T12:33:00Z</time></trkpt><trkpt lat="42.66450615985589" lon="-1.265425692668172"><ele>472.5</ele><time>2026-03-31T12:33:01Z</time></trkpt><trkpt lat="42.66466856427943" lon="-1.2651477039718129"><ele>474.0</ele><time>2026-03-31T12:33:02Z</time></trkpt><trkpt lat="42.66483807796172" lon="-1.264877198224136"><ele>474.5</ele><time>2026-03-31T12:33:03Z</time></trkpt><trkpt lat="42.665003176656576" lon="-1.2646012017245656"><ele>475.0</ele><time>2026-03-31T12:33:04Z</time></trkpt><trkpt lat="42.66516472651102" lon="-1.2643227283860912"><ele>475.0</ele><time>2026-03-31T12:33:05Z</time></trkpt><trkpt lat="42.66533422663918" lon="-1.2640652230531804"><ele>475.0</ele><time>2026-03-31T12:33:06Z</time></trkpt><trkpt lat="42.66552322344691" lon="-1.2638310082142656"><ele>475.0</ele><time>2026-03-31T12:33:07Z</time></trkpt><trkpt lat="42.66571846156648" lon="-1.2636050227891056"><ele>475.0</ele><time>2026-03-31T12:33:08Z</time></trkpt><trkpt lat="42.66591111590879" lon="-1.2633775106617018"><ele>475.0</ele><time>2026-03-31T12:33:09Z</time></trkpt><trkpt lat="42.6661050692863" lon="-1.2631534702201073"><ele>475.0</ele><time>2026-03-31T12:33:10Z</time></trkpt><trkpt lat="42.66630646912755" lon="-1.262926180055543"><ele>470.5</ele><time>2026-03-31T12:33:11Z</time></trkpt><trkpt lat="42.66650394658202" lon="-1.2626966213950208"><ele>466.0</ele><time>2026-03-31T12:33:12Z</time></trkpt><trkpt lat="42.66670428385015" lon="-1.262473477730923"><ele>465.0</ele><time>2026-03-31T12:33:13Z</time></trkpt><trkpt lat="42.66690184771752" lon="-1.262252297004085"><ele>464.0</ele><time>2026-03-31T12:33:14Z</time></trkpt><trkpt lat="42.66710503706658" lon="-1.2620100440188287"><ele>464.0</ele><time>2026-03-31T12:33:15Z</time></trkpt><trkpt lat="42.66730669987215" lon="-1.2617864295753176"><ele>464.0</ele><time>2026-03-31T12:33:16Z</time></trkpt><trkpt lat="42.667507553416705" lon="-1.261568085089007"><ele>462.5</ele><time>2026-03-31T12:33:17Z</time></trkpt><trkpt lat="42.667697896922526" lon="-1.261339642800834"><ele>461.0</ele><time>2026-03-31T12:33:18Z</time></trkpt><trkpt lat="42.66789129393824" lon="-1.2611195679332665"><ele>461.0</ele><time>2026-03-31T12:33:19Z</time></trkpt><trkpt lat="42.66808836711983" lon="-1.2609043126715933"><ele>461.0</ele><time>2026-03-31T12:33:20Z</time></trkpt><trkpt lat="42.66827580284225" lon="-1.260667634668098"><ele>460.5</ele><time>2026-03-31T12:33:21Z</time></trkpt><trkpt lat="42.66844313575545" lon="-1.2604023752247366"><ele>460.0</ele><time>2026-03-31T12:33:22Z</time></trkpt><trkpt lat="42.668589263960676" lon="-1.2601137394250959"><ele>460.5</ele><time>2026-03-31T12:33:23Z</time></trkpt><trkpt lat="42.6687302784713" lon="-1.2598171342367752"><ele>461.0</ele><time>2026-03-31T12:33:24Z</time></trkpt><trkpt lat="42.668881575791076" lon="-1.259517385846565"><ele>461.5</ele><time>2026-03-31T12:33:25Z</time></trkpt><trkpt lat="42.66903527500304" lon="-1.2592127988443327"><ele>462.0</ele><time>2026-03-31T12:33:26Z</time></trkpt><trkpt lat="42.669186495862725" lon="-1.2589106341799048"><ele>462.0</ele><time>2026-03-31T12:33:27Z</time></trkpt><trkpt lat="42.669332528532046" lon="-1.258607169376921"><ele>462.0</ele><time>2026-03-31T12:33:28Z</time></trkpt><trkpt lat="42.669482353371336" lon="-1.2583091828640016"><ele>463.5</ele><time>2026-03-31T12:33:29Z</time></trkpt><trkpt lat="42.669633666413326" lon="-1.2580178584269066"><ele>465.0</ele><time>2026-03-31T12:33:30Z</time></trkpt><trkpt lat="42.6697841630307" lon="-1.2577237953305755"><ele>465.0</ele><time>2026-03-31T12:33:31Z</time></trkpt><trkpt lat="42.6699287203792" lon="-1.2574348008071832"><ele>465.0</ele><time>2026-03-31T12:33:32Z</time></trkpt><trkpt lat="42.670072286461284" lon="-1.257146426649894"><ele>465.0</ele><time>2026-03-31T12:33:33Z</time></trkpt><trkpt lat="42.67021942330016" lon="-1.2568603741410143"><ele>465.0</ele><time>2026-03-31T12:33:34Z</time></trkpt><trkpt lat="42.67036384081167" lon="-1.25657642481353"><ele>466.5</ele><time>2026-03-31T12:33:35Z</time></trkpt><trkpt lat="42.67050102275741" lon="-1.2562919012699398"><ele>468.0</ele><time>2026-03-31T12:33:36Z</time></trkpt><trkpt lat="42.670638251476625" lon="-1.2560095948766532"><ele>468.0</ele><time>2026-03-31T12:33:37Z</time></trkpt><trkpt lat="42.670777105958756" lon="-1.2557329725062198"><ele>468.0</ele><time>2026-03-31T12:33:38Z</time></trkpt><trkpt lat="42.67091426164637" lon="-1.2554581387178307"><ele>468.5</ele><time>2026-03-31T12:33:39Z</time></trkpt><trkpt lat="42.671055116104604" lon="-1.2551830315026096"><ele>469.0</ele><time>2026-03-31T12:33:40Z</time></trkpt><trkpt lat="42.6711982350235" lon="-1.2549067888005618"><ele>470.0</ele><time>2026-03-31T12:33:41Z</time></trkpt><trkpt lat="42.67133400624271" lon="-1.2546259239798088"><ele>471.0</ele><time>2026-03-31T12:33:42Z</time></trkpt><trkpt lat="42.67147110741639" lon="-1.2543383477565448"><ele>471.0</ele><time>2026-03-31T12:33:43Z</time></trkpt><trkpt lat="42.67161243361803" lon="-1.2540513970587086"><ele>471.0</ele><time>2026-03-31T12:33:44Z</time></trkpt><trkpt lat="42.67176217750893" lon="-1.2537645599860598"><ele>472.0</ele><time>2026-03-31T12:33:45Z</time></trkpt><trkpt lat="42.671907430014606" lon="-1.253483505592212"><ele>473.0</ele><time>2026-03-31T12:33:46Z</time></trkpt><trkpt lat="42.67205220025578" lon="-1.253199023390063"><ele>472.5</ele><time>2026-03-31T12:33:47Z</time></trkpt><trkpt lat="42.672191809441394" lon="-1.2529093270099856"><ele>472.0</ele><time>2026-03-31T12:33:48Z</time></trkpt><trkpt lat="42.67231354946251" lon="-1.2526168281002867"><ele>472.0</ele><time>2026-03-31T12:33:49Z</time></trkpt><trkpt lat="42.672402650948975" lon="-1.2523035842650068"><ele>472.0</ele><time>2026-03-31T12:33:50Z</time></trkpt><trkpt lat="42.672516313510286" lon="-1.2520176023261287"><ele>472.0</ele><time>2026-03-31T12:33:51Z</time></trkpt><trkpt lat="42.672476857890594" lon="-1.2516306179617438"><ele>472.0</ele><time>2026-03-31T12:33:52Z</time></trkpt><trkpt lat="42.67247987929197" lon="-1.251295185502269"><ele>472.0</ele><time>2026-03-31T12:33:53Z</time></trkpt><trkpt lat="42.6724869198631" lon="-1.2509537633380452"><ele>472.0</ele><time>2026-03-31T12:33:54Z</time></trkpt><trkpt lat="42.67251956933499" lon="-1.2506168753970301"><ele>471.5</ele><time>2026-03-31T12:33:55Z</time></trkpt><trkpt lat="42.67257587811766" lon="-1.2502925205659765"><ele>471.0</ele><time>2026-03-31T12:33:56Z</time></trkpt><trkpt lat="42.672662493375775" lon="-1.2499780528767617"><ele>473.0</ele><time>2026-03-31T12:33:57Z</time></trkpt><trkpt lat="42.67277401685669" lon="-1.249666969024935"><ele>475.0</ele><time>2026-03-31T12:33:58Z</time></trkpt><trkpt lat="42.67287752354401" lon="-1.2493548520667122"><ele>475.0</ele><time>2026-03-31T12:33:59Z</time></trkpt><trkpt lat="42.672959935467446" lon="-1.249038013346348"><ele>475.0</ele><time>2026-03-31T12:34:00Z</time></trkpt><trkpt lat="42.67303863234318" lon="-1.2487247732990754"><ele>476.0</ele><time>2026-03-31T12:34:01Z</time></trkpt><trkpt lat="42.673122042112745" lon="-1.2484251387628342"><ele>477.0</ele><time>2026-03-31T12:34:02Z</time></trkpt><trkpt lat="42.673210894128445" lon="-1.2481308345835862"><ele>477.5</ele><time>2026-03-31T12:34:03Z</time></trkpt><trkpt lat="42.67329834701403" lon="-1.2478401844465492"><ele>478.0</ele><time>2026-03-31T12:34:04Z</time></trkpt><trkpt lat="42.673391889080534" lon="-1.2475435534731876"><ele>479.0</ele><time>2026-03-31T12:34:05Z</time></trkpt><trkpt lat="42.67349428809222" lon="-1.247252232496366"><ele>480.0</ele><time>2026-03-31T12:34:06Z</time></trkpt><trkpt lat="42.67360140301517" lon="-1.2469696433945092"><ele>481.5</ele><time>2026-03-31T12:34:07Z</time></trkpt><trkpt lat="42.6737058016855" lon="-1.2466852511574182"><ele>483.0</ele><time>2026-03-31T12:34:08Z</time></trkpt><trkpt lat="42.67379860452212" lon="-1.246396076772538"><ele>483.0</ele><time>2026-03-31T12:34:09Z</time></trkpt><trkpt lat="42.673880992564655" lon="-1.2461107751324114"><ele>483.0</ele><time>2026-03-31T12:34:10Z</time></trkpt><trkpt lat="42.673962576140795" lon="-1.2458254601816847"><ele>482.66666666666663</ele><time>2026-03-31T12:34:11Z</time></trkpt><trkpt lat="42.67403481524587" lon="-1.2455507345833203"><ele>482.3333333333333</ele><time>2026-03-31T12:34:12Z</time></trkpt><trkpt lat="42.67409720516123" lon="-1.2452743811568185"><ele>482.0</ele><time>2026-03-31T12:34:13Z</time></trkpt><trkpt lat="42.67415304479967" lon="-1.244997897160064"><ele>482.3333333333333</ele><time>2026-03-31T12:34:14Z</time></trkpt><trkpt lat="42.674209919986644" lon="-1.2447278042047636"><ele>482.66666666666663</ele><time>2026-03-31T12:34:15Z</time></trkpt><trkpt lat="42.674276083840084" lon="-1.2444666577499213"><ele>483.0</ele><time>2026-03-31T12:34:16Z</time></trkpt><trkpt lat="42.67435415046111" lon="-1.2442117757194786"><ele>483.33333333333337</ele><time>2026-03-31T12:34:17Z</time></trkpt><trkpt lat="42.67443075670816" lon="-1.2439584289659553"><ele>483.6666666666667</ele><time>2026-03-31T12:34:18Z</time></trkpt><trkpt lat="42.67450391083266" lon="-1.243715734854615"><ele>484.0</ele><time>2026-03-31T12:34:19Z</time></trkpt><trkpt lat="42.674573146073904" lon="-1.243483158995189"><ele>485.33333333333337</ele><time>2026-03-31T12:34:20Z</time></trkpt><trkpt lat="42.6746414301591" lon="-1.2432532744203462"><ele>486.66666666666663</ele><time>2026-03-31T12:34:21Z</time></trkpt><trkpt lat="42.67471220787231" lon="-1.2430251495177502"><ele>488.0</ele><time>2026-03-31T12:34:22Z</time></trkpt><trkpt lat="42.67478589313739" lon="-1.2428013242930236"><ele>488.0</ele><time>2026-03-31T12:34:23Z</time></trkpt><trkpt lat="42.674857721332494" lon="-1.2425731784335499"><ele>488.0</ele><time>2026-03-31T12:34:24Z</time></trkpt><trkpt lat="42.67492591627868" lon="-1.2423463772784333"><ele>488.0</ele><time>2026-03-31T12:34:25Z</time></trkpt><trkpt lat="42.67499718939733" lon="-1.2421233511051206"><ele>488.0</ele><time>2026-03-31T12:34:26Z</time></trkpt><trkpt lat="42.675071516667124" lon="-1.2419094505114574"><ele>488.0</ele><time>2026-03-31T12:34:27Z</time></trkpt><trkpt lat="42.67514027370972" lon="-1.2417266160834677"><ele>488.0</ele><time>2026-03-31T12:34:28Z</time></trkpt><trkpt lat="42.67519958039994" lon="-1.2415664848746533"><ele>487.75</ele><time>2026-03-31T12:34:29Z</time></trkpt><trkpt lat="42.67526227436562" lon="-1.2413974423330425"><ele>487.5</ele><time>2026-03-31T12:34:30Z</time></trkpt><trkpt lat="42.67531620448893" lon="-1.241246319886415"><ele>487.25</ele><time>2026-03-31T12:34:31Z</time></trkpt><trkpt lat="42.67536764999047" lon="-1.2410992183964422"><ele>487.0</ele><time>2026-03-31T12:34:32Z</time></trkpt><trkpt lat="42.67541448829335" lon="-1.2409600712822892"><ele>487.5</ele><time>2026-03-31T12:34:33Z</time></trkpt><trkpt lat="42.67546330992023" lon="-1.2408228342269048"><ele>488.0</ele><time>2026-03-31T12:34:34Z</time></trkpt><trkpt lat="42.675510763847484" lon="-1.240683240634326"><ele>488.5</ele><time>2026-03-31T12:34:35Z</time></trkpt><trkpt lat="42.675561737965744" lon="-1.2405269332173388"><ele>489.0</ele><time>2026-03-31T12:34:36Z</time></trkpt><trkpt lat="42.67560770407523" lon="-1.2403665031024378"><ele>489.5</ele><time>2026-03-31T12:34:37Z</time></trkpt><trkpt lat="42.6756598947578" lon="-1.2402088866122165"><ele>490.0</ele><time>2026-03-31T12:34:38Z</time></trkpt><trkpt lat="42.675718665778824" lon="-1.2400564236329892"><ele>490.5</ele><time>2026-03-31T12:34:39Z</time></trkpt><trkpt lat="42.67577551219219" lon="-1.2399109750279584"><ele>491.0</ele><time>2026-03-31T12:34:40Z</time></trkpt><trkpt lat="42.67582762958639" lon="-1.2397734506561973"><ele>491.25</ele><time>2026-03-31T12:34:41Z</time></trkpt><trkpt lat="42.67586666907781" lon="-1.2396541307159374"><ele>491.5</ele><time>2026-03-31T12:34:42Z</time></trkpt><trkpt lat="42.67592317678283" lon="-1.2394914884617894"><ele>491.75</ele><time>2026-03-31T12:34:43Z</time></trkpt><trkpt lat="42.676012414639374" lon="-1.2392807349056423"><ele>492.0</ele><time>2026-03-31T12:34:44Z</time></trkpt><trkpt lat="42.67609105097339" lon="-1.2390465761158556"><ele>494.0</ele><time>2026-03-31T12:34:45Z</time></trkpt><trkpt lat="42.67616754163068" lon="-1.238798871533624"><ele>496.0</ele><time>2026-03-31T12:34:46Z</time></trkpt><trkpt lat="42.676245642782646" lon="-1.2385471072478391"><ele>498.0</ele><time>2026-03-31T12:34:47Z</time></trkpt><trkpt lat="42.676324927940556" lon="-1.2383061895404388"><ele>498.33333333333337</ele><time>2026-03-31T12:34:48Z</time></trkpt><trkpt lat="42.676417986739374" lon="-1.238077201218242"><ele>498.6666666666667</ele><time>2026-03-31T12:34:49Z</time></trkpt><trkpt lat="42.67655207445383" lon="-1.2378531986595491"><ele>499.0</ele><time>2026-03-31T12:34:50Z</time></trkpt><trkpt lat="42.67671964378163" lon="-1.2376378584052532"><ele>499.0</ele><time>2026-03-31T12:34:51Z</time></trkpt><trkpt lat="42.67689233433961" lon="-1.2374251573972592"><ele>499.0</ele><time>2026-03-31T12:34:52Z</time></trkpt><trkpt lat="42.67705790072409" lon="-1.2372048430304472"><ele>499.0</ele><time>2026-03-31T12:34:53Z</time></trkpt><trkpt lat="42.67722419035755" lon="-1.2369818686198317"><ele>499.0</ele><time>2026-03-31T12:34:54Z</time></trkpt><trkpt lat="42.67739536303669" lon="-1.236761008478712"><ele>499.0</ele><time>2026-03-31T12:34:55Z</time></trkpt><trkpt lat="42.67756394927119" lon="-1.2365505231574496"><ele>499.0</ele><time>2026-03-31T12:34:56Z</time></trkpt><trkpt lat="42.6777312089492" lon="-1.2363396243176406"><ele>499.5</ele><time>2026-03-31T12:34:57Z</time></trkpt><trkpt lat="42.67789790242435" lon="-1.2361361232726944"><ele>500.0</ele><time>2026-03-31T12:34:58Z</time></trkpt><trkpt lat="42.67807087353721" lon="-1.2359351863685508"><ele>500.0</ele><time>2026-03-31T12:34:59Z</time></trkpt><trkpt lat="42.6782459680003" lon="-1.2357326013352836"><ele>500.0</ele><time>2026-03-31T12:35:00Z</time></trkpt><trkpt lat="42.67841516739691" lon="-1.2355216735965298"><ele>499.5</ele><time>2026-03-31T12:35:01Z</time></trkpt><trkpt lat="42.678579790436366" lon="-1.2353057435690786"><ele>499.0</ele><time>2026-03-31T12:35:02Z</time></trkpt><trkpt lat="42.678757882981024" lon="-1.2350861691586135"><ele>500.0</ele><time>2026-03-31T12:35:03Z</time></trkpt><trkpt lat="42.67893486092721" lon="-1.234881601394434"><ele>501.0</ele><time>2026-03-31T12:35:04Z</time></trkpt><trkpt lat="42.67912396725985" lon="-1.234654634332623"><ele>502.0</ele><time>2026-03-31T12:35:05Z</time></trkpt><trkpt lat="42.67931569271488" lon="-1.2344353078699952"><ele>503.0</ele><time>2026-03-31T12:35:06Z</time></trkpt><trkpt lat="42.67950315122015" lon="-1.234214636965019"><ele>503.5</ele><time>2026-03-31T12:35:07Z</time></trkpt><trkpt lat="42.6796877305107" lon="-1.2339906936072003"><ele>504.0</ele><time>2026-03-31T12:35:08Z</time></trkpt><trkpt lat="42.679862681949736" lon="-1.2337722367847266"><ele>506.0</ele><time>2026-03-31T12:35:09Z</time></trkpt><trkpt lat="42.680042059718104" lon="-1.233564362106029"><ele>508.0</ele><time>2026-03-31T12:35:10Z</time></trkpt><trkpt lat="42.68021227171896" lon="-1.23334405054468"><ele>511.0</ele><time>2026-03-31T12:35:11Z</time></trkpt><trkpt lat="42.68035084396145" lon="-1.2330768889144437"><ele>514.0</ele><time>2026-03-31T12:35:12Z</time></trkpt><trkpt lat="42.68044463822382" lon="-1.2327715336875682"><ele>514.0</ele><time>2026-03-31T12:35:13Z</time></trkpt><trkpt lat="42.68051252042382" lon="-1.2324372340006466"><ele>514.0</ele><time>2026-03-31T12:35:14Z</time></trkpt><trkpt lat="42.68057550824569" lon="-1.232095958517745"><ele>516.5</ele><time>2026-03-31T12:35:15Z</time></trkpt><trkpt lat="42.680641429494514" lon="-1.2317513035230547"><ele>519.0</ele><time>2026-03-31T12:35:16Z</time></trkpt><trkpt lat="42.68071068157423" lon="-1.2313979609806502"><ele>521.5</ele><time>2026-03-31T12:35:17Z</time></trkpt><trkpt lat="42.68077106605952" lon="-1.2310508831984817"><ele>524.0</ele><time>2026-03-31T12:35:18Z</time></trkpt><trkpt lat="42.680812529480896" lon="-1.230705665536718"><ele>526.5</ele><time>2026-03-31T12:35:19Z</time></trkpt><trkpt lat="42.68082784514857" lon="-1.230356219831202"><ele>529.0</ele><time>2026-03-31T12:35:20Z</time></trkpt><trkpt lat="42.68082535251826" lon="-1.230006152670193"><ele>532.0</ele><time>2026-03-31T12:35:21Z</time></trkpt><trkpt lat="42.680819213707856" lon="-1.2296661354991416"><ele>535.0</ele><time>2026-03-31T12:35:22Z</time></trkpt><trkpt lat="42.680826711650674" lon="-1.2293305671468984"><ele>535.0</ele><time>2026-03-31T12:35:23Z</time></trkpt><trkpt lat="42.68083898730667" lon="-1.2290028629531844"><ele>535.0</ele><time>2026-03-31T12:35:24Z</time></trkpt><trkpt lat="42.68085474190063" lon="-1.2286763699654097"><ele>535.0</ele><time>2026-03-31T12:35:25Z</time></trkpt><trkpt lat="42.68089432529629" lon="-1.2283324305518122"><ele>535.0</ele><time>2026-03-31T12:35:26Z</time></trkpt><trkpt lat="42.680962488635" lon="-1.2279748355400466"><ele>532.5</ele><time>2026-03-31T12:35:27Z</time></trkpt><trkpt lat="42.68105703171485" lon="-1.2276309352782633"><ele>530.0</ele><time>2026-03-31T12:35:28Z</time></trkpt><trkpt lat="42.68117783786625" lon="-1.2273299289474529"><ele>535.5</ele><time>2026-03-31T12:35:29Z</time></trkpt><trkpt lat="42.681342589430926" lon="-1.2270371847832469"><ele>541.0</ele><time>2026-03-31T12:35:30Z</time></trkpt><trkpt lat="42.68151436372466" lon="-1.2267236753403836"><ele>536.0</ele><time>2026-03-31T12:35:31Z</time></trkpt><trkpt lat="42.681649044039816" lon="-1.2263867042765817"><ele>531.0</ele><time>2026-03-31T12:35:32Z</time></trkpt><trkpt lat="42.681784526187265" lon="-1.2260539340021963"><ele>541.0</ele><time>2026-03-31T12:35:33Z</time></trkpt><trkpt lat="42.68194754360478" lon="-1.2257437420865296"><ele>551.0</ele><time>2026-03-31T12:35:34Z</time></trkpt><trkpt lat="42.68211113048888" lon="-1.2254398534782331"><ele>551.0</ele><time>2026-03-31T12:35:35Z</time></trkpt><trkpt lat="42.68224282895489" lon="-1.2251227522332244"><ele>551.0</ele><time>2026-03-31T12:35:36Z</time></trkpt><trkpt lat="42.68233444646718" lon="-1.22481655959492"><ele>547.6666666666666</ele><time>2026-03-31T12:35:37Z</time></trkpt><trkpt lat="42.68240963200884" lon="-1.2245344239091878"><ele>544.3333333333334</ele><time>2026-03-31T12:35:38Z</time></trkpt><trkpt lat="42.68250980374255" lon="-1.224284225686945"><ele>541.0</ele><time>2026-03-31T12:35:39Z</time></trkpt><trkpt lat="42.682660333358044" lon="-1.2240871641252973"><ele>541.5</ele><time>2026-03-31T12:35:40Z</time></trkpt><trkpt lat="42.682856944502944" lon="-1.2239455194453355"><ele>542.0</ele><time>2026-03-31T12:35:41Z</time></trkpt><trkpt lat="42.68308601054477" lon="-1.2238448514773317"><ele>542.0</ele><time>2026-03-31T12:35:42Z</time></trkpt><trkpt lat="42.68332809937458" lon="-1.22378368733297"><ele>542.0</ele><time>2026-03-31T12:35:43Z</time></trkpt><trkpt lat="42.68356061595273" lon="-1.2237223179583003"><ele>544.6666666666666</ele><time>2026-03-31T12:35:44Z</time></trkpt><trkpt lat="42.68376471161525" lon="-1.2236485825621084"><ele>547.3333333333334</ele><time>2026-03-31T12:35:45Z</time></trkpt><trkpt lat="42.68394857355711" lon="-1.2235837593338892"><ele>550.0</ele><time>2026-03-31T12:35:46Z</time></trkpt><trkpt lat="42.684096050903335" lon="-1.2235497053686406"><ele>550.0</ele><time>2026-03-31T12:35:47Z</time></trkpt><trkpt lat="42.68421381756615" lon="-1.2234926576767169"><ele>550.0</ele><time>2026-03-31T12:35:48Z</time></trkpt><trkpt lat="42.68430070213002" lon="-1.2233706675559266"><ele>550.0</ele><time>2026-03-31T12:35:49Z</time></trkpt><trkpt lat="42.68434645184571" lon="-1.223176265706735"><ele>550.0</ele><time>2026-03-31T12:35:50Z</time></trkpt><trkpt lat="42.68439174576638" lon="-1.2230054605257885"><ele>551.75</ele><time>2026-03-31T12:35:51Z</time></trkpt><trkpt lat="42.68436307553847" lon="-1.2228563587663883"><ele>553.5</ele><time>2026-03-31T12:35:52Z</time></trkpt><trkpt lat="42.684256447090355" lon="-1.222748094122183"><ele>555.25</ele><time>2026-03-31T12:35:53Z</time></trkpt><trkpt lat="42.68409955180785" lon="-1.2227407786641227"><ele>557.0</ele><time>2026-03-31T12:35:54Z</time></trkpt><trkpt lat="42.68390546716661" lon="-1.2226703289709546"><ele>557.0</ele><time>2026-03-31T12:35:55Z</time></trkpt><trkpt lat="42.683703350730696" lon="-1.2226177956688642"><ele>557.0</ele><time>2026-03-31T12:35:56Z</time></trkpt><trkpt lat="42.68348896170114" lon="-1.2225368714012386"><ele>557.0</ele><time>2026-03-31T12:35:57Z</time></trkpt><trkpt lat="42.68329992461387" lon="-1.2224526388659265"><ele>554.6666666666666</ele><time>2026-03-31T12:35:58Z</time></trkpt><trkpt lat="42.68315201695615" lon="-1.2223644955361062"><ele>552.3333333333334</ele><time>2026-03-31T12:35:59Z</time></trkpt><trkpt lat="42.6829593057361" lon="-1.2222337583024583"><ele>550.0</ele><time>2026-03-31T12:36:00Z</time></trkpt><trkpt lat="42.682747955535234" lon="-1.2221909963453683"><ele>559.6666666666667</ele><time>2026-03-31T12:36:01Z</time></trkpt><trkpt lat="42.682546391740324" lon="-1.2222007081733433"><ele>569.3333333333334</ele><time>2026-03-31T12:36:02Z</time></trkpt><trkpt lat="42.68236966916837" lon="-1.2222209520038048"><ele>579.0</ele><time>2026-03-31T12:36:03Z</time></trkpt><trkpt lat="42.682194504327626" lon="-1.2222533803499014"><ele>579.0</ele><time>2026-03-31T12:36:04Z</time></trkpt><trkpt lat="42.682028635014476" lon="-1.2222665860958972"><ele>579.0</ele><time>2026-03-31T12:36:05Z</time></trkpt><trkpt lat="42.6818896236894" lon="-1.2222894309108054"><ele>579.0</ele><time>2026-03-31T12:36:06Z</time></trkpt><trkpt lat="42.681754628544304" lon="-1.2222814714669699"><ele>579.0</ele><time>2026-03-31T12:36:07Z</time></trkpt><trkpt lat="42.68162326275919" lon="-1.2221819307168789"><ele>577.0</ele><time>2026-03-31T12:36:08Z</time></trkpt><trkpt lat="42.68155368824009" lon="-1.2219930765258167"><ele>575.0</ele><time>2026-03-31T12:36:09Z</time></trkpt><trkpt lat="42.68153909272408" lon="-1.2217473049576766"><ele>573.0</ele><time>2026-03-31T12:36:10Z</time></trkpt><trkpt lat="42.68156075412451" lon="-1.221474028513579"><ele>577.0</ele><time>2026-03-31T12:36:11Z</time></trkpt><trkpt lat="42.68157621521364" lon="-1.2212020294763923"><ele>581.0</ele><time>2026-03-31T12:36:12Z</time></trkpt><trkpt lat="42.68156929114701" lon="-1.2209591910635318"><ele>585.0</ele><time>2026-03-31T12:36:13Z</time></trkpt><trkpt lat="42.68156549057403" lon="-1.2207316673326234"><ele>586.6666666666666</ele><time>2026-03-31T12:36:14Z</time></trkpt><trkpt lat="42.681566266533956" lon="-1.220511541441058"><ele>588.3333333333333</ele><time>2026-03-31T12:36:15Z</time></trkpt><trkpt lat="42.68156199047587" lon="-1.2202900059746364"><ele>590.0</ele><time>2026-03-31T12:36:16Z</time></trkpt><trkpt lat="42.68155786990463" lon="-1.2200746614372453"><ele>590.0</ele><time>2026-03-31T12:36:17Z</time></trkpt><trkpt lat="42.68156259936599" lon="-1.2198609561560891"><ele>590.0</ele><time>2026-03-31T12:36:18Z</time></trkpt><trkpt lat="42.68158475195507" lon="-1.2196217621491867"><ele>590.0</ele><time>2026-03-31T12:36:19Z</time></trkpt><trkpt lat="42.681634644039015" lon="-1.2193815809997053"><ele>589.3333333333333</ele><time>2026-03-31T12:36:20Z</time></trkpt><trkpt lat="42.681706719744476" lon="-1.2191447673737386"><ele>588.6666666666666</ele><time>2026-03-31T12:36:21Z</time></trkpt><trkpt lat="42.681737625072294" lon="-1.2188989111749209"><ele>588.0</ele><time>2026-03-31T12:36:22Z</time></trkpt><trkpt lat="42.68178987505694" lon="-1.2186432899233306"><ele>600.0</ele><time>2026-03-31T12:36:23Z</time></trkpt><trkpt lat="42.68202898735507" lon="-1.218431009919292"><ele>612.0</ele><time>2026-03-31T12:36:24Z</time></trkpt><trkpt lat="42.68217653676275" lon="-1.2181703572760614"><ele>610.0</ele><time>2026-03-31T12:36:25Z</time></trkpt><trkpt lat="42.682298100463804" lon="-1.2179143368715073"><ele>608.0</ele><time>2026-03-31T12:36:26Z</time></trkpt><trkpt lat="42.68239409140683" lon="-1.2176563026069007"><ele>606.0</ele><time>2026-03-31T12:36:27Z</time></trkpt><trkpt lat="42.68245574034497" lon="-1.2173861486593502"><ele>605.3333333333334</ele><time>2026-03-31T12:36:28Z</time></trkpt><trkpt lat="42.682499776528864" lon="-1.2171230637233619"><ele>604.6666666666667</ele><time>2026-03-31T12:36:29Z</time></trkpt><trkpt lat="42.68257369608322" lon="-1.216876977093916"><ele>604.0</ele><time>2026-03-31T12:36:30Z</time></trkpt><trkpt lat="42.68267897634065" lon="-1.216649773625008"><ele>604.6666666666667</ele><time>2026-03-31T12:36:31Z</time></trkpt><trkpt lat="42.6827474182144" lon="-1.2163954235926242"><ele>605.3333333333334</ele><time>2026-03-31T12:36:32Z</time></trkpt><trkpt lat="42.682752115866705" lon="-1.2161232547439997"><ele>606.0</ele><time>2026-03-31T12:36:33Z</time></trkpt><trkpt lat="42.682690912964844" lon="-1.2158647772223286"><ele>607.3333333333334</ele><time>2026-03-31T12:36:34Z</time></trkpt><trkpt lat="42.68262747611144" lon="-1.2156287047503718"><ele>608.6666666666667</ele><time>2026-03-31T12:36:35Z</time></trkpt><trkpt lat="42.68257599434781" lon="-1.215398899761445"><ele>610.0</ele><time>2026-03-31T12:36:36Z</time></trkpt><trkpt lat="42.682535933090556" lon="-1.2151638077404918"><ele>610.0</ele><time>2026-03-31T12:36:37Z</time></trkpt><trkpt lat="42.68249223317553" lon="-1.2149271209353683"><ele>610.0</ele><time>2026-03-31T12:36:38Z</time></trkpt><trkpt lat="42.682440862532225" lon="-1.2146774961982632"><ele>610.0</ele><time>2026-03-31T12:36:39Z</time></trkpt><trkpt lat="42.68239278983115" lon="-1.2144018649894759"><ele>611.6666666666667</ele><time>2026-03-31T12:36:40Z</time></trkpt><trkpt lat="42.68235841498851" lon="-1.2141110425181052"><ele>613.3333333333334</ele><time>2026-03-31T12:36:41Z</time></trkpt><trkpt lat="42.68236234256466" lon="-1.2138002756949684"><ele>615.0</ele><time>2026-03-31T12:36:42Z</time></trkpt><trkpt lat="42.68239774992534" lon="-1.2134790995619948"><ele>617.0</ele><time>2026-03-31T12:36:43Z</time></trkpt><trkpt lat="42.68242896570143" lon="-1.21316875080621"><ele>619.0</ele><time>2026-03-31T12:36:44Z</time></trkpt><trkpt lat="42.68244597987763" lon="-1.212864670741995"><ele>620.0</ele><time>2026-03-31T12:36:45Z</time></trkpt><trkpt lat="42.68246329597111" lon="-1.2125660144944077"><ele>621.0</ele><time>2026-03-31T12:36:46Z</time></trkpt><trkpt lat="42.68248377568258" lon="-1.2122702823872489"><ele>622.0</ele><time>2026-03-31T12:36:47Z</time></trkpt><trkpt lat="42.68250800335015" lon="-1.211977461103647"><ele>622.6666666666667</ele><time>2026-03-31T12:36:48Z</time></trkpt><trkpt lat="42.68254097039115" lon="-1.211684245634798"><ele>623.3333333333334</ele><time>2026-03-31T12:36:49Z</time></trkpt><trkpt lat="42.6825900031543" lon="-1.2113937995442763"><ele>624.0</ele><time>2026-03-31T12:36:50Z</time></trkpt><trkpt lat="42.682659240093045" lon="-1.211103432629972"><ele>624.5</ele><time>2026-03-31T12:36:51Z</time></trkpt><trkpt lat="42.682748020346125" lon="-1.2108102663339542"><ele>625.0</ele><time>2026-03-31T12:36:52Z</time></trkpt><trkpt lat="42.682846670345924" lon="-1.2105070871734749"><ele>638.5</ele><time>2026-03-31T12:36:53Z</time></trkpt><trkpt lat="42.68293155339967" lon="-1.210213034350228"><ele>652.0</ele><time>2026-03-31T12:36:54Z</time></trkpt><trkpt lat="42.68298274250365" lon="-1.2099154161493284"><ele>650.0</ele><time>2026-03-31T12:36:55Z</time></trkpt><trkpt lat="42.682993289693066" lon="-1.2096001542321455"><ele>648.0</ele><time>2026-03-31T12:36:56Z</time></trkpt><trkpt lat="42.68301667893485" lon="-1.2092804446774919"><ele>642.5</ele><time>2026-03-31T12:36:57Z</time></trkpt><trkpt lat="42.68309024597571" lon="-1.2089785997045868"><ele>637.0</ele><time>2026-03-31T12:36:58Z</time></trkpt><trkpt lat="42.68321517180812" lon="-1.2087220069506541"><ele>637.0</ele><time>2026-03-31T12:36:59Z</time></trkpt><trkpt lat="42.683375123345854" lon="-1.2085116645140117"><ele>637.0</ele><time>2026-03-31T12:37:00Z</time></trkpt><trkpt lat="42.683567102689814" lon="-1.2083427625863858"><ele>640.5</ele><time>2026-03-31T12:37:01Z</time></trkpt><trkpt lat="42.68378039475379" lon="-1.2082086383036295"><ele>644.0</ele><time>2026-03-31T12:37:02Z</time></trkpt><trkpt lat="42.684002911997325" lon="-1.20811041564241"><ele>644.0</ele><time>2026-03-31T12:37:03Z</time></trkpt><trkpt lat="42.6842221423305" lon="-1.20803545869287"><ele>644.0</ele><time>2026-03-31T12:37:04Z</time></trkpt><trkpt lat="42.68442852490831" lon="-1.2079794643280466"><ele>644.0</ele><time>2026-03-31T12:37:05Z</time></trkpt><trkpt lat="42.684636798095866" lon="-1.207969683211136"><ele>649.0</ele><time>2026-03-31T12:37:06Z</time></trkpt><trkpt lat="42.68486135099861" lon="-1.2080086328107813"><ele>654.0</ele><time>2026-03-31T12:37:07Z</time></trkpt><trkpt lat="42.68509611006486" lon="-1.208017477155775"><ele>654.0</ele><time>2026-03-31T12:37:08Z</time></trkpt><trkpt lat="42.685321225837846" lon="-1.2079605547536545"><ele>654.0</ele><time>2026-03-31T12:37:09Z</time></trkpt><trkpt lat="42.685523672532746" lon="-1.2078778855995587"><ele>654.0</ele><time>2026-03-31T12:37:10Z</time></trkpt><trkpt lat="42.685706973647264" lon="-1.2077783671752171"><ele>654.0</ele><time>2026-03-31T12:37:11Z</time></trkpt><trkpt lat="42.685875522727" lon="-1.2076283380746962"><ele>654.0</ele><time>2026-03-31T12:37:12Z</time></trkpt><trkpt lat="42.68604267058434" lon="-1.207424419084982"><ele>654.0</ele><time>2026-03-31T12:37:13Z</time></trkpt><trkpt lat="42.68622243759021" lon="-1.207207716781919"><ele>654.0</ele><time>2026-03-31T12:37:14Z</time></trkpt><trkpt lat="42.686416862518804" lon="-1.2069970134141823"><ele>654.0</ele><time>2026-03-31T12:37:15Z</time></trkpt><trkpt lat="42.68662121746871" lon="-1.2067796686317769"><ele>654.0</ele><time>2026-03-31T12:37:16Z</time></trkpt><trkpt lat="42.68682755102751" lon="-1.2065501991146461"><ele>654.0</ele><time>2026-03-31T12:37:17Z</time></trkpt><trkpt lat="42.68703124912903" lon="-1.2063283445968938"><ele>656.5</ele><time>2026-03-31T12:37:18Z</time></trkpt><trkpt lat="42.687238145983805" lon="-1.2061058762442691"><ele>659.0</ele><time>2026-03-31T12:37:19Z</time></trkpt><trkpt lat="42.68743524671088" lon="-1.2058863415936236"><ele>659.0</ele><time>2026-03-31T12:37:20Z</time></trkpt><trkpt lat="42.68761867467543" lon="-1.2056711602623393"><ele>659.0</ele><time>2026-03-31T12:37:21Z</time></trkpt><trkpt lat="42.68780309674662" lon="-1.205452807348274"><ele>659.5</ele><time>2026-03-31T12:37:22Z</time></trkpt><trkpt lat="42.68798005987076" lon="-1.2052283171882843"><ele>660.0</ele><time>2026-03-31T12:37:23Z</time></trkpt><trkpt lat="42.68814781208471" lon="-1.2049722269692358"><ele>661.0</ele><time>2026-03-31T12:37:24Z</time></trkpt><trkpt lat="42.68828405035541" lon="-1.2046872251026828"><ele>662.0</ele><time>2026-03-31T12:37:25Z</time></trkpt><trkpt lat="42.68839856093474" lon="-1.2043741040977083"><ele>662.0</ele><time>2026-03-31T12:37:26Z</time></trkpt><trkpt lat="42.688508159943474" lon="-1.2040534359209774"><ele>662.0</ele><time>2026-03-31T12:37:27Z</time></trkpt><trkpt lat="42.688621351602166" lon="-1.203745883463575"><ele>663.0</ele><time>2026-03-31T12:37:28Z</time></trkpt><trkpt lat="42.68873165826851" lon="-1.203448885670022"><ele>664.0</ele><time>2026-03-31T12:37:29Z</time></trkpt><trkpt lat="42.688839526029646" lon="-1.203167990907789"><ele>664.5</ele><time>2026-03-31T12:37:30Z</time></trkpt><trkpt lat="42.68894964434296" lon="-1.2028875026386725"><ele>665.0</ele><time>2026-03-31T12:37:31Z</time></trkpt><trkpt lat="42.68905958445898" lon="-1.2026159069844697"><ele>665.0</ele><time>2026-03-31T12:37:32Z</time></trkpt><trkpt lat="42.68917447540533" lon="-1.2023528374248418"><ele>665.0</ele><time>2026-03-31T12:37:33Z</time></trkpt><trkpt lat="42.689307345508496" lon="-1.2020977171764653"><ele>666.5</ele><time>2026-03-31T12:37:34Z</time></trkpt><trkpt lat="42.68946642712609" lon="-1.2018487175730947"><ele>668.0</ele><time>2026-03-31T12:37:35Z</time></trkpt><trkpt lat="42.68963765546036" lon="-1.2016103631655335"><ele>668.5</ele><time>2026-03-31T12:37:36Z</time></trkpt><trkpt lat="42.689818618960565" lon="-1.2013813728273706"><ele>669.0</ele><time>2026-03-31T12:37:37Z</time></trkpt><trkpt lat="42.69001302912362" lon="-1.2011835186376603"><ele>669.0</ele><time>2026-03-31T12:37:38Z</time></trkpt><trkpt lat="42.690220330211226" lon="-1.2010108253633183"><ele>669.0</ele><time>2026-03-31T12:37:39Z</time></trkpt><trkpt lat="42.69043130556502" lon="-1.2008429004444383"><ele>670.5</ele><time>2026-03-31T12:37:40Z</time></trkpt><trkpt lat="42.69063494034691" lon="-1.2006793254913306"><ele>672.0</ele><time>2026-03-31T12:37:41Z</time></trkpt><trkpt lat="42.69083760481778" lon="-1.2005101554075468"><ele>672.0</ele><time>2026-03-31T12:37:42Z</time></trkpt><trkpt lat="42.69104178647872" lon="-1.2003317393590542"><ele>672.0</ele><time>2026-03-31T12:37:43Z</time></trkpt><trkpt lat="42.69117105797479" lon="-1.19999087757338"><ele>668.5</ele><time>2026-03-31T12:37:44Z</time></trkpt><trkpt lat="42.691378468977376" lon="-1.1998076447435788"><ele>665.0</ele><time>2026-03-31T12:37:45Z</time></trkpt><trkpt lat="42.691592787030544" lon="-1.1996256814281978"><ele>665.0</ele><time>2026-03-31T12:37:46Z</time></trkpt><trkpt lat="42.69182255794111" lon="-1.1994785850330207"><ele>665.0</ele><time>2026-03-31T12:37:47Z</time></trkpt><trkpt lat="42.691986574540714" lon="-1.1992270061845482"><ele>664.0</ele><time>2026-03-31T12:37:48Z</time></trkpt><trkpt lat="42.692141681528234" lon="-1.1989753836439643"><ele>663.0</ele><time>2026-03-31T12:37:49Z</time></trkpt><trkpt lat="42.69229050378028" lon="-1.1987172257497642"><ele>663.0</ele><time>2026-03-31T12:37:50Z</time></trkpt><trkpt lat="42.69242753468498" lon="-1.1984395896285673"><ele>663.0</ele><time>2026-03-31T12:37:51Z</time></trkpt><trkpt lat="42.692547922626105" lon="-1.1981443558848357"><ele>662.5</ele><time>2026-03-31T12:37:52Z</time></trkpt><trkpt lat="42.69266052673863" lon="-1.197837470258197"><ele>662.0</ele><time>2026-03-31T12:37:53Z</time></trkpt><trkpt lat="42.69277121122899" lon="-1.1975265092767666"><ele>658.5</ele><time>2026-03-31T12:37:54Z</time></trkpt><trkpt lat="42.69288724839942" lon="-1.197208843189769"><ele>655.0</ele><time>2026-03-31T12:37:55Z</time></trkpt><trkpt lat="42.69301064568051" lon="-1.1968973750828487"><ele>655.0</ele><time>2026-03-31T12:37:56Z</time></trkpt><trkpt lat="42.69314292186198" lon="-1.1965997743876566"><ele>655.0</ele><time>2026-03-31T12:37:57Z</time></trkpt><trkpt lat="42.693296254766985" lon="-1.1963029906124896"><ele>655.5</ele><time>2026-03-31T12:37:58Z</time></trkpt><trkpt lat="42.69346720988196" lon="-1.1960124853427456"><ele>656.0</ele><time>2026-03-31T12:37:59Z</time></trkpt><trkpt lat="42.693655691866965" lon="-1.195729890416344"><ele>650.5</ele><time>2026-03-31T12:38:00Z</time></trkpt><trkpt lat="42.693860506334396" lon="-1.195462580562285"><ele>645.0</ele><time>2026-03-31T12:38:01Z</time></trkpt><trkpt lat="42.694082128501556" lon="-1.1952090067284011"><ele>645.0</ele><time>2026-03-31T12:38:02Z</time></trkpt><trkpt lat="42.6943082311338" lon="-1.1949481537400224"><ele>645.0</ele><time>2026-03-31T12:38:03Z</time></trkpt><trkpt lat="42.69452657731632" lon="-1.1946810693930305"><ele>636.0</ele><time>2026-03-31T12:38:04Z</time></trkpt><trkpt lat="42.69474368390849" lon="-1.194413713365796"><ele>627.0</ele><time>2026-03-31T12:38:05Z</time></trkpt><trkpt lat="42.69496131083419" lon="-1.1941473973898633"><ele>628.0</ele><time>2026-03-31T12:38:06Z</time></trkpt><trkpt lat="42.695179902169784" lon="-1.1938848870571244"><ele>629.0</ele><time>2026-03-31T12:38:07Z</time></trkpt><trkpt lat="42.695400775338726" lon="-1.1936225353044294"><ele>629.0</ele><time>2026-03-31T12:38:08Z</time></trkpt><trkpt lat="42.69562314603812" lon="-1.1933576240148926"><ele>629.0</ele><time>2026-03-31T12:38:09Z</time></trkpt><trkpt lat="42.69584126137457" lon="-1.193087570768419"><ele>629.0</ele><time>2026-03-31T12:38:10Z</time></trkpt><trkpt lat="42.69605309317655" lon="-1.1928269010385208"><ele>629.0</ele><time>2026-03-31T12:38:11Z</time></trkpt><trkpt lat="42.69626182740866" lon="-1.1925631809127608"><ele>618.0</ele><time>2026-03-31T12:38:12Z</time></trkpt><trkpt lat="42.696462185376795" lon="-1.192277626678504"><ele>607.0</ele><time>2026-03-31T12:38:13Z</time></trkpt><trkpt lat="42.69664293891192" lon="-1.1919721926118545"><ele>607.0</ele><time>2026-03-31T12:38:14Z</time></trkpt><trkpt lat="42.69679490437651" lon="-1.1916346711036552"><ele>607.0</ele><time>2026-03-31T12:38:15Z</time></trkpt><trkpt lat="42.69692539504311" lon="-1.1912815340299465"><ele>611.0</ele><time>2026-03-31T12:38:16Z</time></trkpt><trkpt lat="42.69703987265282" lon="-1.1909175301157755"><ele>615.0</ele><time>2026-03-31T12:38:17Z</time></trkpt><trkpt lat="42.697141031145144" lon="-1.190554032026289"><ele>617.5</ele><time>2026-03-31T12:38:18Z</time></trkpt><trkpt lat="42.6972402430701" lon="-1.1901913328430946"><ele>620.0</ele><time>2026-03-31T12:38:19Z</time></trkpt><trkpt lat="42.69735584984538" lon="-1.1898514087515377"><ele>618.5</ele><time>2026-03-31T12:38:20Z</time></trkpt><trkpt lat="42.69749126047947" lon="-1.189525795205261"><ele>617.0</ele><time>2026-03-31T12:38:21Z</time></trkpt><trkpt lat="42.69764120619323" lon="-1.1892037394089385"><ele>612.0</ele><time>2026-03-31T12:38:22Z</time></trkpt><trkpt lat="42.69780923505382" lon="-1.1888808965535629"><ele>607.0</ele><time>2026-03-31T12:38:23Z</time></trkpt><trkpt lat="42.69799222852734" lon="-1.1885732116618435"><ele>607.0</ele><time>2026-03-31T12:38:24Z</time></trkpt><trkpt lat="42.698178986588665" lon="-1.188288901551757"><ele>607.0</ele><time>2026-03-31T12:38:25Z</time></trkpt><trkpt lat="42.69836704493794" lon="-1.1880268502893576"><ele>603.5</ele><time>2026-03-31T12:38:26Z</time></trkpt><trkpt lat="42.69854948499858" lon="-1.1877677591607116"><ele>600.0</ele><time>2026-03-31T12:38:27Z</time></trkpt><trkpt lat="42.69872495949215" lon="-1.1875013458610875"><ele>596.0</ele><time>2026-03-31T12:38:28Z</time></trkpt><trkpt lat="42.69888915876491" lon="-1.1872241970797754"><ele>592.0</ele><time>2026-03-31T12:38:29Z</time></trkpt><trkpt lat="42.699035456777594" lon="-1.186926480212311"><ele>592.0</ele><time>2026-03-31T12:38:30Z</time></trkpt><trkpt lat="42.699163887670444" lon="-1.186611004428654"><ele>592.0</ele><time>2026-03-31T12:38:31Z</time></trkpt><trkpt lat="42.699272141279586" lon="-1.1862738772029178"><ele>586.5</ele><time>2026-03-31T12:38:32Z</time></trkpt><trkpt lat="42.69935346287019" lon="-1.1859203229083828"><ele>581.0</ele><time>2026-03-31T12:38:33Z</time></trkpt><trkpt lat="42.699405440241726" lon="-1.1855557503376133"><ele>582.0</ele><time>2026-03-31T12:38:34Z</time></trkpt><trkpt lat="42.699433984758954" lon="-1.185183887085253"><ele>583.0</ele><time>2026-03-31T12:38:35Z</time></trkpt><trkpt lat="42.699439020868695" lon="-1.1848129075871694"><ele>585.5</ele><time>2026-03-31T12:38:36Z</time></trkpt><trkpt lat="42.69942067724426" lon="-1.184439107196046"><ele>588.0</ele><time>2026-03-31T12:38:37Z</time></trkpt><trkpt lat="42.699373724320495" lon="-1.18407170888033"><ele>581.0</ele><time>2026-03-31T12:38:38Z</time></trkpt><trkpt lat="42.699297988690546" lon="-1.1837074357798005"><ele>574.0</ele><time>2026-03-31T12:38:39Z</time></trkpt><trkpt lat="42.69920059611295" lon="-1.1833549370541672"><ele>575.0</ele><time>2026-03-31T12:38:40Z</time></trkpt><trkpt lat="42.69908166983643" lon="-1.1830098244534757"><ele>576.0</ele><time>2026-03-31T12:38:41Z</time></trkpt><trkpt lat="42.69893964489853" lon="-1.1826825418178262"><ele>576.0</ele><time>2026-03-31T12:38:42Z</time></trkpt><trkpt lat="42.698783806850074" lon="-1.1823733482807472"><ele>576.0</ele><time>2026-03-31T12:38:43Z</time></trkpt><trkpt lat="42.69863644521222" lon="-1.1820595269757412"><ele>571.0</ele><time>2026-03-31T12:38:44Z</time></trkpt><trkpt lat="42.69851060624254" lon="-1.181731431648607"><ele>566.0</ele><time>2026-03-31T12:38:45Z</time></trkpt><trkpt lat="42.69840457737212" lon="-1.1813880105916188"><ele>566.0</ele><time>2026-03-31T12:38:46Z</time></trkpt><trkpt lat="42.69830452553197" lon="-1.181039073389717"><ele>566.0</ele><time>2026-03-31T12:38:47Z</time></trkpt><trkpt lat="42.69822428703737" lon="-1.180675570712819"><ele>561.0</ele><time>2026-03-31T12:38:48Z</time></trkpt><trkpt lat="42.698182330886155" lon="-1.1802782123353643"><ele>556.0</ele><time>2026-03-31T12:38:49Z</time></trkpt><trkpt lat="42.69816109016664" lon="-1.1798716041749986"><ele>559.0</ele><time>2026-03-31T12:38:50Z</time></trkpt><trkpt lat="42.69814498887528" lon="-1.1794609178226327"><ele>562.0</ele><time>2026-03-31T12:38:51Z</time></trkpt><trkpt lat="42.698115724129394" lon="-1.179039229294903"><ele>561.5</ele><time>2026-03-31T12:38:52Z</time></trkpt><trkpt lat="42.69807916056673" lon="-1.178605377686187"><ele>561.0</ele><time>2026-03-31T12:38:53Z</time></trkpt><trkpt lat="42.69802768336844" lon="-1.1781693123310533"><ele>561.0</ele><time>2026-03-31T12:38:54Z</time></trkpt><trkpt lat="42.697954432614644" lon="-1.1777309640948208"><ele>561.0</ele><time>2026-03-31T12:38:55Z</time></trkpt><trkpt lat="42.697871539480566" lon="-1.1772928084695242"><ele>559.0</ele><time>2026-03-31T12:38:56Z</time></trkpt><trkpt lat="42.69777850540607" lon="-1.176862806711191"><ele>557.0</ele><time>2026-03-31T12:38:57Z</time></trkpt><trkpt lat="42.69767780635212" lon="-1.1764574583079312"><ele>546.5</ele><time>2026-03-31T12:38:58Z</time></trkpt><trkpt lat="42.69757443625973" lon="-1.1760719840663714"><ele>536.0</ele><time>2026-03-31T12:38:59Z</time></trkpt><trkpt lat="42.69747398153688" lon="-1.1756974627021917"><ele>538.0</ele><time>2026-03-31T12:39:00Z</time></trkpt><trkpt lat="42.69738010191528" lon="-1.175323493662986"><ele>540.0</ele><time>2026-03-31T12:39:01Z</time></trkpt><trkpt lat="42.69730329022369" lon="-1.174945961159059"><ele>540.5</ele><time>2026-03-31T12:39:02Z</time></trkpt><trkpt lat="42.697241702371045" lon="-1.174568098675488"><ele>541.0</ele><time>2026-03-31T12:39:03Z</time></trkpt><trkpt lat="42.697183692183934" lon="-1.1741940462205696"><ele>538.5</ele><time>2026-03-31T12:39:04Z</time></trkpt><trkpt lat="42.69712206327991" lon="-1.1738073475607154"><ele>536.0</ele><time>2026-03-31T12:39:05Z</time></trkpt><trkpt lat="42.69706178547628" lon="-1.1734031095799775"><ele>536.0</ele><time>2026-03-31T12:39:06Z</time></trkpt><trkpt lat="42.69700248636332" lon="-1.1730485579791803"><ele>536.0</ele><time>2026-03-31T12:39:07Z</time></trkpt><trkpt lat="42.69695038008057" lon="-1.1727019634484055"><ele>538.0</ele><time>2026-03-31T12:39:08Z</time></trkpt><trkpt lat="42.69691109687508" lon="-1.1723826114369416"><ele>540.0</ele><time>2026-03-31T12:39:09Z</time></trkpt><trkpt lat="42.69693028924808" lon="-1.1720907896230355"><ele>540.0</ele><time>2026-03-31T12:39:10Z</time></trkpt><trkpt lat="42.69699059921495" lon="-1.17178803389805"><ele>540.0</ele><time>2026-03-31T12:39:11Z</time></trkpt><trkpt lat="42.697113313520155" lon="-1.1714980536117745"><ele>544.0</ele><time>2026-03-31T12:39:12Z</time></trkpt><trkpt lat="42.69728568881938" lon="-1.1712372784266403"><ele>548.0</ele><time>2026-03-31T12:39:13Z</time></trkpt><trkpt lat="42.697484135653944" lon="-1.1709971641694497"><ele>548.0</ele><time>2026-03-31T12:39:14Z</time></trkpt><trkpt lat="42.69771547629462" lon="-1.1708062037444338"><ele>548.0</ele><time>2026-03-31T12:39:15Z</time></trkpt><trkpt lat="42.69795925236513" lon="-1.1706264818368919"><ele>550.0</ele><time>2026-03-31T12:39:16Z</time></trkpt><trkpt lat="42.698205868368376" lon="-1.1704245056964913"><ele>552.0</ele><time>2026-03-31T12:39:17Z</time></trkpt><trkpt lat="42.69844282087813" lon="-1.1702129563029204"><ele>551.0</ele><time>2026-03-31T12:39:18Z</time></trkpt><trkpt lat="42.698660081811504" lon="-1.170015576271132"><ele>550.0</ele><time>2026-03-31T12:39:19Z</time></trkpt><trkpt lat="42.69886226487068" lon="-1.1698468353444107"><ele>557.0</ele><time>2026-03-31T12:39:20Z</time></trkpt><trkpt lat="42.69908841608487" lon="-1.169716741320522"><ele>564.0</ele><time>2026-03-31T12:39:21Z</time></trkpt><trkpt lat="42.699341847415425" lon="-1.1696399073818247"><ele>565.0</ele><time>2026-03-31T12:39:22Z</time></trkpt><trkpt lat="42.69960457678458" lon="-1.1695726761847316"><ele>566.0</ele><time>2026-03-31T12:39:23Z</time></trkpt><trkpt lat="42.6998653768598" lon="-1.169499814039718"><ele>566.0</ele><time>2026-03-31T12:39:24Z</time></trkpt><trkpt lat="42.70011672861784" lon="-1.1694228059803489"><ele>566.0</ele><time>2026-03-31T12:39:25Z</time></trkpt><trkpt lat="42.700341030834586" lon="-1.169336764677995"><ele>567.6666666666666</ele><time>2026-03-31T12:39:26Z</time></trkpt><trkpt lat="42.700553315343356" lon="-1.1692514563478948"><ele>569.3333333333334</ele><time>2026-03-31T12:39:27Z</time></trkpt><trkpt lat="42.70073324348832" lon="-1.1691423816573046"><ele>571.0</ele><time>2026-03-31T12:39:28Z</time></trkpt><trkpt lat="42.700880465133174" lon="-1.1689673018043698"><ele>571.0</ele><time>2026-03-31T12:39:29Z</time></trkpt><trkpt lat="42.700975849990684" lon="-1.1687248615065366"><ele>571.0</ele><time>2026-03-31T12:39:30Z</time></trkpt><trkpt lat="42.70101357335383" lon="-1.168431356357677"><ele>571.0</ele><time>2026-03-31T12:39:31Z</time></trkpt><trkpt lat="42.701071561031966" lon="-1.168139650893675"><ele>568.0</ele><time>2026-03-31T12:39:32Z</time></trkpt><trkpt lat="42.70114250697111" lon="-1.167886335790819"><ele>565.0</ele><time>2026-03-31T12:39:33Z</time></trkpt><trkpt lat="42.701285176956134" lon="-1.1676584003114736"><ele>562.0</ele><time>2026-03-31T12:39:34Z</time></trkpt><trkpt lat="42.70147925997377" lon="-1.167463185091206"><ele>559.0</ele><time>2026-03-31T12:39:35Z</time></trkpt><trkpt lat="42.70169907202475" lon="-1.1672541278058228"><ele>556.0</ele><time>2026-03-31T12:39:36Z</time></trkpt><trkpt lat="42.70192793598149" lon="-1.1670172246049422"><ele>556.0</ele><time>2026-03-31T12:39:37Z</time></trkpt><trkpt lat="42.7021278617178" lon="-1.166790973655069"><ele>556.0</ele><time>2026-03-31T12:39:38Z</time></trkpt><trkpt lat="42.70231035783396" lon="-1.1665793544181613"><ele>565.0</ele><time>2026-03-31T12:39:39Z</time></trkpt><trkpt lat="42.7025040456718" lon="-1.166396885502377"><ele>574.0</ele><time>2026-03-31T12:39:40Z</time></trkpt><trkpt lat="42.70271654178177" lon="-1.1662550753138652"><ele>571.0</ele><time>2026-03-31T12:39:41Z</time></trkpt><trkpt lat="42.702927452584525" lon="-1.1661723600602092"><ele>568.0</ele><time>2026-03-31T12:39:42Z</time></trkpt><trkpt lat="42.70314797109616" lon="-1.1661600648701878"><ele>565.0</ele><time>2026-03-31T12:39:43Z</time></trkpt><trkpt lat="42.70338260040579" lon="-1.1662436527616844"><ele>565.0</ele><time>2026-03-31T12:39:44Z</time></trkpt><trkpt lat="42.703628177575446" lon="-1.1663957871619217"><ele>565.0</ele><time>2026-03-31T12:39:45Z</time></trkpt><trkpt lat="42.70389854176632" lon="-1.1665663428809823"><ele>562.0</ele><time>2026-03-31T12:39:46Z</time></trkpt><trkpt lat="42.704167000297865" lon="-1.166714885472846"><ele>559.0</ele><time>2026-03-31T12:39:47Z</time></trkpt><trkpt lat="42.704427360334314" lon="-1.1668476665524796"><ele>559.0</ele><time>2026-03-31T12:39:48Z</time></trkpt><trkpt lat="42.704679450633606" lon="-1.1669843114767224"><ele>559.0</ele><time>2026-03-31T12:39:49Z</time></trkpt><trkpt lat="42.70493765843458" lon="-1.1671242484558688"><ele>559.0</ele><time>2026-03-31T12:39:50Z</time></trkpt><trkpt lat="42.70519834425686" lon="-1.167260990021504"><ele>559.0</ele><time>2026-03-31T12:39:51Z</time></trkpt><trkpt lat="42.70546721916376" lon="-1.1674006430452644"><ele>555.0</ele><time>2026-03-31T12:39:52Z</time></trkpt><trkpt lat="42.7057495607254" lon="-1.1675488963267124"><ele>551.0</ele><time>2026-03-31T12:39:53Z</time></trkpt><trkpt lat="42.706043504691735" lon="-1.1676966766679309"><ele>554.5</ele><time>2026-03-31T12:39:54Z</time></trkpt><trkpt lat="42.706316451234" lon="-1.167838855692409"><ele>558.0</ele><time>2026-03-31T12:39:55Z</time></trkpt><trkpt lat="42.70657236807444" lon="-1.167979093740839"><ele>558.0</ele><time>2026-03-31T12:39:56Z</time></trkpt><trkpt lat="42.7068446203454" lon="-1.168121969191606"><ele>558.0</ele><time>2026-03-31T12:39:57Z</time></trkpt><trkpt lat="42.70712139077653" lon="-1.1682706706546622"><ele>554.0</ele><time>2026-03-31T12:39:58Z</time></trkpt><trkpt lat="42.70740833510098" lon="-1.1684283483290179"><ele>550.0</ele><time>2026-03-31T12:39:59Z</time></trkpt><trkpt lat="42.70768304454412" lon="-1.1685718675551962"><ele>555.5</ele><time>2026-03-31T12:40:00Z</time></trkpt><trkpt lat="42.707952072617246" lon="-1.168714683389613"><ele>561.0</ele><time>2026-03-31T12:40:01Z</time></trkpt><trkpt lat="42.70821452388284" lon="-1.168858113919945"><ele>561.0</ele><time>2026-03-31T12:40:02Z</time></trkpt><trkpt lat="42.70847843832941" lon="-1.1690112697041053"><ele>561.0</ele><time>2026-03-31T12:40:03Z</time></trkpt><trkpt lat="42.70871660351837" lon="-1.1691875422507694"><ele>561.0</ele><time>2026-03-31T12:40:04Z</time></trkpt><trkpt lat="42.70893416000305" lon="-1.1694140299749"><ele>561.0</ele><time>2026-03-31T12:40:05Z</time></trkpt><trkpt lat="42.70915128305037" lon="-1.1696633028963153"><ele>558.5</ele><time>2026-03-31T12:40:06Z</time></trkpt><trkpt lat="42.70937017209089" lon="-1.169872344463735"><ele>556.0</ele><time>2026-03-31T12:40:07Z</time></trkpt><trkpt lat="42.70961750606453" lon="-1.1700334034936704"><ele>556.0</ele><time>2026-03-31T12:40:08Z</time></trkpt><trkpt lat="42.709852527668026" lon="-1.1701563478653292"><ele>556.0</ele><time>2026-03-31T12:40:09Z</time></trkpt><trkpt lat="42.710078864087656" lon="-1.1702765637402344"><ele>561.3333333333334</ele><time>2026-03-31T12:40:10Z</time></trkpt><trkpt lat="42.71028408777658" lon="-1.170398721133706"><ele>566.6666666666666</ele><time>2026-03-31T12:40:11Z</time></trkpt><trkpt lat="42.71047829379028" lon="-1.1705187408949953"><ele>572.0</ele><time>2026-03-31T12:40:12Z</time></trkpt><trkpt lat="42.710658009116436" lon="-1.1706298083551079"><ele>572.0</ele><time>2026-03-31T12:40:13Z</time></trkpt><trkpt lat="42.71083997499541" lon="-1.1706952337528864"><ele>572.0</ele><time>2026-03-31T12:40:14Z</time></trkpt><trkpt lat="42.71102547103303" lon="-1.1706700335474611"><ele>572.0</ele><time>2026-03-31T12:40:15Z</time></trkpt><trkpt lat="42.71120054558615" lon="-1.1705703838882122"><ele>568.6666666666666</ele><time>2026-03-31T12:40:16Z</time></trkpt><trkpt lat="42.71134142978171" lon="-1.1704169778256392"><ele>565.3333333333334</ele><time>2026-03-31T12:40:17Z</time></trkpt><trkpt lat="42.71144805778539" lon="-1.170201606353898"><ele>562.0</ele><time>2026-03-31T12:40:18Z</time></trkpt><trkpt lat="42.71152124319252" lon="-1.169947560483398"><ele>563.0</ele><time>2026-03-31T12:40:19Z</time></trkpt><trkpt lat="42.71157025951852" lon="-1.1696513913752677"><ele>564.0</ele><time>2026-03-31T12:40:20Z</time></trkpt><trkpt lat="42.711612637670484" lon="-1.1693414053577595"><ele>564.0</ele><time>2026-03-31T12:40:21Z</time></trkpt><trkpt lat="42.71166032297824" lon="-1.1690368222087264"><ele>564.0</ele><time>2026-03-31T12:40:22Z</time></trkpt><trkpt lat="42.711693414457606" lon="-1.1687051117179805"><ele>563.0</ele><time>2026-03-31T12:40:23Z</time></trkpt><trkpt lat="42.71169022224044" lon="-1.1683309630630685"><ele>562.0</ele><time>2026-03-31T12:40:24Z</time></trkpt><trkpt lat="42.711658096245756" lon="-1.1679623427106574"><ele>560.5</ele><time>2026-03-31T12:40:25Z</time></trkpt><trkpt lat="42.711620487159294" lon="-1.1676469840381725"><ele>559.0</ele><time>2026-03-31T12:40:26Z</time></trkpt><trkpt lat="42.7115975630979" lon="-1.1673430594692575"><ele>561.0</ele><time>2026-03-31T12:40:27Z</time></trkpt><trkpt lat="42.7115924102156" lon="-1.1670459544044982"><ele>563.0</ele><time>2026-03-31T12:40:28Z</time></trkpt><trkpt lat="42.711609601521545" lon="-1.1667377289537813"><ele>565.0</ele><time>2026-03-31T12:40:29Z</time></trkpt><trkpt lat="42.71166890270452" lon="-1.1663975702138665"><ele>564.0</ele><time>2026-03-31T12:40:30Z</time></trkpt><trkpt lat="42.71177514600636" lon="-1.1660611163654715"><ele>563.0</ele><time>2026-03-31T12:40:31Z</time></trkpt><trkpt lat="42.711909798836615" lon="-1.1657279563942655"><ele>562.0</ele><time>2026-03-31T12:40:32Z</time></trkpt><trkpt lat="42.71205261804898" lon="-1.165388801678891"><ele>561.0</ele><time>2026-03-31T12:40:33Z</time></trkpt><trkpt lat="42.712168334028405" lon="-1.1650522869036546"><ele>562.0</ele><time>2026-03-31T12:40:34Z</time></trkpt><trkpt lat="42.71227578082615" lon="-1.1647211193344795"><ele>563.0</ele><time>2026-03-31T12:40:35Z</time></trkpt><trkpt lat="42.71239163082107" lon="-1.1643886413687594"><ele>563.0</ele><time>2026-03-31T12:40:36Z</time></trkpt><trkpt lat="42.71250935441661" lon="-1.1640560297243354"><ele>563.0</ele><time>2026-03-31T12:40:37Z</time></trkpt><trkpt lat="42.71263124909208" lon="-1.1637063860289019"><ele>563.0</ele><time>2026-03-31T12:40:38Z</time></trkpt><trkpt lat="42.71275407428128" lon="-1.1633551024737023"><ele>563.0</ele><time>2026-03-31T12:40:39Z</time></trkpt><trkpt lat="42.71287881307481" lon="-1.1630204847786587"><ele>563.0</ele><time>2026-03-31T12:40:40Z</time></trkpt><trkpt lat="42.71300094340987" lon="-1.162722266573973"><ele>563.0</ele><time>2026-03-31T12:40:41Z</time></trkpt><trkpt lat="42.71313417090792" lon="-1.162439939143021"><ele>571.0</ele><time>2026-03-31T12:40:42Z</time></trkpt><trkpt lat="42.7132800230666" lon="-1.162168879844485"><ele>579.0</ele><time>2026-03-31T12:40:43Z</time></trkpt><trkpt lat="42.713425202450864" lon="-1.1619000902834162"><ele>579.0</ele><time>2026-03-31T12:40:44Z</time></trkpt><trkpt lat="42.71355859975649" lon="-1.1616228696480744"><ele>579.0</ele><time>2026-03-31T12:40:45Z</time></trkpt><trkpt lat="42.71367592895363" lon="-1.161321356623993"><ele>573.5</ele><time>2026-03-31T12:40:46Z</time></trkpt><trkpt lat="42.713773990905736" lon="-1.1609975418393799"><ele>568.0</ele><time>2026-03-31T12:40:47Z</time></trkpt><trkpt lat="42.713863378285446" lon="-1.160659059143092"><ele>568.0</ele><time>2026-03-31T12:40:48Z</time></trkpt><trkpt lat="42.713956344007904" lon="-1.160321655818735"><ele>568.0</ele><time>2026-03-31T12:40:49Z</time></trkpt><trkpt lat="42.71405383273474" lon="-1.1600053448284062"><ele>576.0</ele><time>2026-03-31T12:40:50Z</time></trkpt><trkpt lat="42.71415725851778" lon="-1.1596843277861313"><ele>584.0</ele><time>2026-03-31T12:40:51Z</time></trkpt><trkpt lat="42.71425995643448" lon="-1.1593614201178106"><ele>584.0</ele><time>2026-03-31T12:40:52Z</time></trkpt><trkpt lat="42.714354893588784" lon="-1.1590699713383537"><ele>584.0</ele><time>2026-03-31T12:40:53Z</time></trkpt><trkpt lat="42.71445232935945" lon="-1.1588057030416594"><ele>577.6666666666666</ele><time>2026-03-31T12:40:54Z</time></trkpt><trkpt lat="42.71454463456286" lon="-1.1585558649984926"><ele>571.3333333333334</ele><time>2026-03-31T12:40:55Z</time></trkpt><trkpt lat="42.71462570455265" lon="-1.158328772423502"><ele>565.0</ele><time>2026-03-31T12:40:56Z</time></trkpt><trkpt lat="42.714712815478435" lon="-1.1581076168366076"><ele>565.0</ele><time>2026-03-31T12:40:57Z</time></trkpt><trkpt lat="42.714823523491845" lon="-1.1579086777538556"><ele>565.0</ele><time>2026-03-31T12:40:58Z</time></trkpt><trkpt lat="42.71497726778993" lon="-1.1577337698624912"><ele>565.0</ele><time>2026-03-31T12:40:59Z</time></trkpt><trkpt lat="42.71515105437728" lon="-1.157571543551868"><ele>564.0</ele><time>2026-03-31T12:41:00Z</time></trkpt><trkpt lat="42.71533598980689" lon="-1.1574302588897025"><ele>563.0</ele><time>2026-03-31T12:41:01Z</time></trkpt><trkpt lat="42.71553544169675" lon="-1.157345477932661"><ele>562.0</ele><time>2026-03-31T12:41:02Z</time></trkpt><trkpt lat="42.71575061409317" lon="-1.1573222043597708"><ele>562.0</ele><time>2026-03-31T12:41:03Z</time></trkpt><trkpt lat="42.71593307246998" lon="-1.1572787871395604"><ele>562.0</ele><time>2026-03-31T12:41:04Z</time></trkpt><trkpt lat="42.71607705757583" lon="-1.1571500568804403"><ele>562.0</ele><time>2026-03-31T12:41:05Z</time></trkpt><trkpt lat="42.716172020058835" lon="-1.1569640462192103"><ele>559.6666666666667</ele><time>2026-03-31T12:41:06Z</time></trkpt><trkpt lat="42.71621757393595" lon="-1.1567408944437052"><ele>557.3333333333334</ele><time>2026-03-31T12:41:07Z</time></trkpt><trkpt lat="42.71620311624458" lon="-1.1565128243599345"><ele>555.0</ele><time>2026-03-31T12:41:08Z</time></trkpt><trkpt lat="42.7161215282211" lon="-1.1562988377814083"><ele>557.0</ele><time>2026-03-31T12:41:09Z</time></trkpt><trkpt lat="42.715997082219275" lon="-1.1560946856131287"><ele>559.0</ele><time>2026-03-31T12:41:10Z</time></trkpt><trkpt lat="42.71583880902803" lon="-1.1559159617128612"><ele>561.0</ele><time>2026-03-31T12:41:11Z</time></trkpt><trkpt lat="42.71570012524471" lon="-1.1557419740343384"><ele>559.0</ele><time>2026-03-31T12:41:12Z</time></trkpt><trkpt lat="42.71557251841194" lon="-1.155547570760454"><ele>557.0</ele><time>2026-03-31T12:41:13Z</time></trkpt><trkpt lat="42.71543332933385" lon="-1.1553732293130434"><ele>555.0</ele><time>2026-03-31T12:41:14Z</time></trkpt><trkpt lat="42.715261855627425" lon="-1.1552493960548391"><ele>556.6666666666666</ele><time>2026-03-31T12:41:15Z</time></trkpt><trkpt lat="42.71506895957417" lon="-1.1551864854666594"><ele>558.3333333333333</ele><time>2026-03-31T12:41:16Z</time></trkpt><trkpt lat="42.714873043587744" lon="-1.1551716869981894"><ele>560.0</ele><time>2026-03-31T12:41:17Z</time></trkpt><trkpt lat="42.714679033127865" lon="-1.155167995200304"><ele>560.0</ele><time>2026-03-31T12:41:18Z</time></trkpt><trkpt lat="42.71447284056735" lon="-1.1550981828356848"><ele>560.0</ele><time>2026-03-31T12:41:19Z</time></trkpt><trkpt lat="42.714268739834765" lon="-1.1549962136662664"><ele>560.0</ele><time>2026-03-31T12:41:20Z</time></trkpt><trkpt lat="42.71406188856832" lon="-1.1548719810573203"><ele>559.0</ele><time>2026-03-31T12:41:21Z</time></trkpt><trkpt lat="42.71385114754964" lon="-1.154726860091812"><ele>558.0</ele><time>2026-03-31T12:41:22Z</time></trkpt><trkpt lat="42.713652411887445" lon="-1.1545615090090082"><ele>563.5</ele><time>2026-03-31T12:41:23Z</time></trkpt><trkpt lat="42.71345628130845" lon="-1.154351086107978"><ele>569.0</ele><time>2026-03-31T12:41:24Z</time></trkpt><trkpt lat="42.71327897195092" lon="-1.1541041104897243"><ele>564.0</ele><time>2026-03-31T12:41:25Z</time></trkpt><trkpt lat="42.71311554682077" lon="-1.1538400120725683"><ele>559.0</ele><time>2026-03-31T12:41:26Z</time></trkpt><trkpt lat="42.71296083352127" lon="-1.1535678916256917"><ele>559.0</ele><time>2026-03-31T12:41:27Z</time></trkpt><trkpt lat="42.71280898408232" lon="-1.1533061009401497"><ele>559.0</ele><time>2026-03-31T12:41:28Z</time></trkpt><trkpt lat="42.71265051264808" lon="-1.1530494064846055"><ele>561.5</ele><time>2026-03-31T12:41:29Z</time></trkpt><trkpt lat="42.712494280979726" lon="-1.1527923570701881"><ele>564.0</ele><time>2026-03-31T12:41:30Z</time></trkpt><trkpt lat="42.71233913699221" lon="-1.1525344660801937"><ele>561.5</ele><time>2026-03-31T12:41:31Z</time></trkpt><trkpt lat="42.71218441164926" lon="-1.1522724324357039"><ele>559.0</ele><time>2026-03-31T12:41:32Z</time></trkpt><trkpt lat="42.71203431961141" lon="-1.1520216468625881"><ele>561.5</ele><time>2026-03-31T12:41:33Z</time></trkpt><trkpt lat="42.711886078280614" lon="-1.1517743001674368"><ele>564.0</ele><time>2026-03-31T12:41:34Z</time></trkpt><trkpt lat="42.71174167810364" lon="-1.1515313218189926"><ele>564.0</ele><time>2026-03-31T12:41:35Z</time></trkpt><trkpt lat="42.7116053515705" lon="-1.151297881126989"><ele>564.0</ele><time>2026-03-31T12:41:36Z</time></trkpt><trkpt lat="42.71148437063998" lon="-1.1510704469605169"><ele>564.0</ele><time>2026-03-31T12:41:37Z</time></trkpt><trkpt lat="42.71139840190674" lon="-1.150844838429193"><ele>563.6666666666666</ele><time>2026-03-31T12:41:38Z</time></trkpt><trkpt lat="42.711351423263885" lon="-1.150582087119201"><ele>563.3333333333333</ele><time>2026-03-31T12:41:39Z</time></trkpt><trkpt lat="42.71135164242946" lon="-1.1502822824869579"><ele>563.0</ele><time>2026-03-31T12:41:40Z</time></trkpt><trkpt lat="42.71141120012667" lon="-1.1499941779325706"><ele>564.6666666666666</ele><time>2026-03-31T12:41:41Z</time></trkpt><trkpt lat="42.71150674887176" lon="-1.1497155129417076"><ele>566.3333333333334</ele><time>2026-03-31T12:41:42Z</time></trkpt><trkpt lat="42.71159235571629" lon="-1.1494437281750007"><ele>568.0</ele><time>2026-03-31T12:41:43Z</time></trkpt><trkpt lat="42.71167868468981" lon="-1.149156425130666"><ele>572.0</ele><time>2026-03-31T12:41:44Z</time></trkpt><trkpt lat="42.71176470732547" lon="-1.1488689309871287"><ele>576.0</ele><time>2026-03-31T12:41:45Z</time></trkpt><trkpt lat="42.71185453170467" lon="-1.1485780837268824"><ele>572.5</ele><time>2026-03-31T12:41:46Z</time></trkpt><trkpt lat="42.71195624871744" lon="-1.1482784005608937"><ele>569.0</ele><time>2026-03-31T12:41:47Z</time></trkpt><trkpt lat="42.71208510883788" lon="-1.1479695049159413"><ele>569.0</ele><time>2026-03-31T12:41:48Z</time></trkpt><trkpt lat="42.71222833819149" lon="-1.1476524913384942"><ele>569.0</ele><time>2026-03-31T12:41:49Z</time></trkpt><trkpt lat="42.712378601895914" lon="-1.147326087537442"><ele>571.5</ele><time>2026-03-31T12:41:50Z</time></trkpt><trkpt lat="42.71253814172797" lon="-1.1469877132106323"><ele>574.0</ele><time>2026-03-31T12:41:51Z</time></trkpt><trkpt lat="42.712697521818455" lon="-1.1466573675788436"><ele>570.0</ele><time>2026-03-31T12:41:52Z</time></trkpt><trkpt lat="42.712845137996496" lon="-1.1463352356288183"><ele>566.0</ele><time>2026-03-31T12:41:53Z</time></trkpt><trkpt lat="42.7130063421703" lon="-1.1460319981682958"><ele>566.0</ele><time>2026-03-31T12:41:54Z</time></trkpt><trkpt lat="42.71317949384604" lon="-1.1457511844760648"><ele>566.0</ele><time>2026-03-31T12:41:55Z</time></trkpt><trkpt lat="42.71336798915964" lon="-1.1454871120517565"><ele>565.5</ele><time>2026-03-31T12:41:56Z</time></trkpt><trkpt lat="42.71355950734882" lon="-1.145227861088783"><ele>565.0</ele><time>2026-03-31T12:41:57Z</time></trkpt><trkpt lat="42.713736985887245" lon="-1.1449612371732785"><ele>569.5</ele><time>2026-03-31T12:41:58Z</time></trkpt><trkpt lat="42.71389742206701" lon="-1.1446875330280213"><ele>574.0</ele><time>2026-03-31T12:41:59Z</time></trkpt><trkpt lat="42.71403231483911" lon="-1.1443928615131054"><ele>574.0</ele><time>2026-03-31T12:42:00Z</time></trkpt><trkpt lat="42.71413897289705" lon="-1.1440949739237922"><ele>574.0</ele><time>2026-03-31T12:42:01Z</time></trkpt><trkpt lat="42.71421361285562" lon="-1.143789256344256"><ele>574.5</ele><time>2026-03-31T12:42:02Z</time></trkpt><trkpt lat="42.71425952073042" lon="-1.143465565019233"><ele>575.0</ele><time>2026-03-31T12:42:03Z</time></trkpt><trkpt lat="42.71428654008237" lon="-1.1431332773232241"><ele>575.0</ele><time>2026-03-31T12:42:04Z</time></trkpt><trkpt lat="42.71428966207556" lon="-1.142798051658583"><ele>575.0</ele><time>2026-03-31T12:42:05Z</time></trkpt><trkpt lat="42.71426615360948" lon="-1.1424642646910779"><ele>574.0</ele><time>2026-03-31T12:42:06Z</time></trkpt><trkpt lat="42.7142062261682" lon="-1.1421212620284522"><ele>573.0</ele><time>2026-03-31T12:42:07Z</time></trkpt><trkpt lat="42.7141064091632" lon="-1.1417921565840474"><ele>572.5</ele><time>2026-03-31T12:42:08Z</time></trkpt><trkpt lat="42.71397325405776" lon="-1.1414770671569654"><ele>572.0</ele><time>2026-03-31T12:42:09Z</time></trkpt><trkpt lat="42.71380932426389" lon="-1.141175577826353"><ele>572.0</ele><time>2026-03-31T12:42:10Z</time></trkpt><trkpt lat="42.71363808272067" lon="-1.1408663092380278"><ele>572.0</ele><time>2026-03-31T12:42:11Z</time></trkpt><trkpt lat="42.713474479138775" lon="-1.140542696860347"><ele>572.5</ele><time>2026-03-31T12:42:12Z</time></trkpt><trkpt lat="42.71328740325335" lon="-1.140226154041005"><ele>573.0</ele><time>2026-03-31T12:42:13Z</time></trkpt><trkpt lat="42.713117055382824" lon="-1.1399135365589368"><ele>571.0</ele><time>2026-03-31T12:42:14Z</time></trkpt><trkpt lat="42.71295322395755" lon="-1.1396224703287525"><ele>569.0</ele><time>2026-03-31T12:42:15Z</time></trkpt><trkpt lat="42.71278037727035" lon="-1.1393461685124688"><ele>568.0</ele><time>2026-03-31T12:42:16Z</time></trkpt><trkpt lat="42.712558193201744" lon="-1.1391275609148244"><ele>567.0</ele><time>2026-03-31T12:42:17Z</time></trkpt><trkpt lat="42.712321289082496" lon="-1.1388807338325893"><ele>567.0</ele><time>2026-03-31T12:42:18Z</time></trkpt><trkpt lat="42.71208042805473" lon="-1.1386115264063843"><ele>567.0</ele><time>2026-03-31T12:42:19Z</time></trkpt><trkpt lat="42.711815866959924" lon="-1.1383504994833147"><ele>567.0</ele><time>2026-03-31T12:42:20Z</time></trkpt><trkpt lat="42.71154990929584" lon="-1.1380747424291286"><ele>567.0</ele><time>2026-03-31T12:42:21Z</time></trkpt><trkpt lat="42.711308079599796" lon="-1.1378220906178635"><ele>567.0</ele><time>2026-03-31T12:42:22Z</time></trkpt><trkpt lat="42.71108346096797" lon="-1.1375911603150666"><ele>567.0</ele><time>2026-03-31T12:42:23Z</time></trkpt><trkpt lat="42.71087499932555" lon="-1.1373647552444883"><ele>567.0</ele><time>2026-03-31T12:42:24Z</time></trkpt><trkpt lat="42.71065433016738" lon="-1.1371378013204048"><ele>567.0</ele><time>2026-03-31T12:42:25Z</time></trkpt><trkpt lat="42.71044411016495" lon="-1.1369235865516027"><ele>567.0</ele><time>2026-03-31T12:42:26Z</time></trkpt><trkpt lat="42.710250167736554" lon="-1.1367168428153407"><ele>567.0</ele><time>2026-03-31T12:42:27Z</time></trkpt><trkpt lat="42.71004781559876" lon="-1.1365121131123397"><ele>567.0</ele><time>2026-03-31T12:42:28Z</time></trkpt><trkpt lat="42.70980555858801" lon="-1.1363628367269845"><ele>567.0</ele><time>2026-03-31T12:42:29Z</time></trkpt><trkpt lat="42.709541374549204" lon="-1.136210920457603"><ele>569.0</ele><time>2026-03-31T12:42:30Z</time></trkpt><trkpt lat="42.70927326810338" lon="-1.1360530498198633"><ele>571.0</ele><time>2026-03-31T12:42:31Z</time></trkpt><trkpt lat="42.70901706446517" lon="-1.135925384282589"><ele>571.0</ele><time>2026-03-31T12:42:32Z</time></trkpt><trkpt lat="42.70877977530609" lon="-1.135793179231118"><ele>571.0</ele><time>2026-03-31T12:42:33Z</time></trkpt><trkpt lat="42.708567630707876" lon="-1.1356603214048395"><ele>571.5</ele><time>2026-03-31T12:42:34Z</time></trkpt><trkpt lat="42.708359198978975" lon="-1.135534504221709"><ele>572.0</ele><time>2026-03-31T12:42:35Z</time></trkpt><trkpt lat="42.70814435730884" lon="-1.1353948013778898"><ele>572.0</ele><time>2026-03-31T12:42:36Z</time></trkpt><trkpt lat="42.70794786638036" lon="-1.1351035726693222"><ele>572.0</ele><time>2026-03-31T12:42:37Z</time></trkpt><trkpt lat="42.707770498820345" lon="-1.1348445037255535"><ele>575.5</ele><time>2026-03-31T12:42:38Z</time></trkpt><trkpt lat="42.70759566066577" lon="-1.1345910393063805"><ele>579.0</ele><time>2026-03-31T12:42:39Z</time></trkpt><trkpt lat="42.70742174364544" lon="-1.1343472962709296"><ele>579.0</ele><time>2026-03-31T12:42:40Z</time></trkpt><trkpt lat="42.70725535094002" lon="-1.1341156406472253"><ele>579.0</ele><time>2026-03-31T12:42:41Z</time></trkpt><trkpt lat="42.70710676993224" lon="-1.133888015984119"><ele>576.6666666666666</ele><time>2026-03-31T12:42:42Z</time></trkpt><trkpt lat="42.706982939269615" lon="-1.1336371846004298"><ele>574.3333333333333</ele><time>2026-03-31T12:42:43Z</time></trkpt><trkpt lat="42.70688048125634" lon="-1.1333672779049058"><ele>572.0</ele><time>2026-03-31T12:42:44Z</time></trkpt><trkpt lat="42.706797976410535" lon="-1.1330685120972677"><ele>577.0</ele><time>2026-03-31T12:42:45Z</time></trkpt><trkpt lat="42.706754025459475" lon="-1.1327181763752692"><ele>582.0</ele><time>2026-03-31T12:42:46Z</time></trkpt><trkpt lat="42.70671933332212" lon="-1.1323309886988646"><ele>582.0</ele><time>2026-03-31T12:42:47Z</time></trkpt><trkpt lat="42.70667648160073" lon="-1.1319242594304555"><ele>582.0</ele><time>2026-03-31T12:42:48Z</time></trkpt><trkpt lat="42.706624238280604" lon="-1.1315013020540716"><ele>579.5</ele><time>2026-03-31T12:42:49Z</time></trkpt><trkpt lat="42.7065742933723" lon="-1.1311069704072136"><ele>577.0</ele><time>2026-03-31T12:42:50Z</time></trkpt><trkpt lat="42.70652744783746" lon="-1.1307238960306307"><ele>575.5</ele><time>2026-03-31T12:42:51Z</time></trkpt><trkpt lat="42.706484574992494" lon="-1.1303471546971204"><ele>574.0</ele><time>2026-03-31T12:42:52Z</time></trkpt><trkpt lat="42.70644651700128" lon="-1.129976826355902"><ele>573.0</ele><time>2026-03-31T12:42:53Z</time></trkpt><trkpt lat="42.706419807054665" lon="-1.1296082564204635"><ele>572.0</ele><time>2026-03-31T12:42:54Z</time></trkpt><trkpt lat="42.706409797247574" lon="-1.1292409543467452"><ele>572.0</ele><time>2026-03-31T12:42:55Z</time></trkpt><trkpt lat="42.70641420080366" lon="-1.128876367368884"><ele>572.0</ele><time>2026-03-31T12:42:56Z</time></trkpt><trkpt lat="42.70641540621815" lon="-1.1285167690790479"><ele>571.5</ele><time>2026-03-31T12:42:57Z</time></trkpt><trkpt lat="42.70640428836687" lon="-1.1281619775873213"><ele>571.0</ele><time>2026-03-31T12:42:58Z</time></trkpt><trkpt lat="42.70635836878455" lon="-1.127816048335342"><ele>571.0</ele><time>2026-03-31T12:42:59Z</time></trkpt><trkpt lat="42.706292915353735" lon="-1.1274612533463544"><ele>571.0</ele><time>2026-03-31T12:43:00Z</time></trkpt><trkpt lat="42.70623897703731" lon="-1.1271254918726126"><ele>570.0</ele><time>2026-03-31T12:43:01Z</time></trkpt><trkpt lat="42.70618289699252" lon="-1.1268231299611593"><ele>569.0</ele><time>2026-03-31T12:43:02Z</time></trkpt><trkpt lat="42.706167482614184" lon="-1.12650916757042"><ele>570.6666666666666</ele><time>2026-03-31T12:43:03Z</time></trkpt><trkpt lat="42.70617686870143" lon="-1.126235611146876"><ele>572.3333333333334</ele><time>2026-03-31T12:43:04Z</time></trkpt><trkpt lat="42.70619568921014" lon="-1.1260100984397423"><ele>574.0</ele><time>2026-03-31T12:43:05Z</time></trkpt><trkpt lat="42.706248079416966" lon="-1.1257960355009022"><ele>580.0</ele><time>2026-03-31T12:43:06Z</time></trkpt><trkpt lat="42.70636002398743" lon="-1.1255735024461169"><ele>586.0</ele><time>2026-03-31T12:43:07Z</time></trkpt><trkpt lat="42.70653122517342" lon="-1.1253775298600037"><ele>592.0</ele><time>2026-03-31T12:43:08Z</time></trkpt><trkpt lat="42.7067363921438" lon="-1.125240788677281"><ele>587.0</ele><time>2026-03-31T12:43:09Z</time></trkpt><trkpt lat="42.706968392932524" lon="-1.125189080013627"><ele>582.0</ele><time>2026-03-31T12:43:10Z</time></trkpt><trkpt lat="42.707225144093485" lon="-1.1252030419167167"><ele>582.0</ele><time>2026-03-31T12:43:11Z</time></trkpt><trkpt lat="42.707481604828146" lon="-1.12522589665214"><ele>582.0</ele><time>2026-03-31T12:43:12Z</time></trkpt><trkpt lat="42.70770324057379" lon="-1.1252414375719169"><ele>580.3333333333334</ele><time>2026-03-31T12:43:13Z</time></trkpt><trkpt lat="42.7079018475779" lon="-1.1252407389473305"><ele>578.6666666666667</ele><time>2026-03-31T12:43:14Z</time></trkpt><trkpt lat="42.708079352102395" lon="-1.1252085066856827"><ele>577.0</ele><time>2026-03-31T12:43:15Z</time></trkpt><trkpt lat="42.708217792785156" lon="-1.1250774932806515"><ele>577.0</ele><time>2026-03-31T12:43:16Z</time></trkpt><trkpt lat="42.70833158630853" lon="-1.1249086790458869"><ele>577.0</ele><time>2026-03-31T12:43:17Z</time></trkpt><trkpt lat="42.70845384340882" lon="-1.1246848685858868"><ele>577.0</ele><time>2026-03-31T12:43:18Z</time></trkpt><trkpt lat="42.708602715133004" lon="-1.1244426382248849"><ele>576.0</ele><time>2026-03-31T12:43:19Z</time></trkpt><trkpt lat="42.70874533101403" lon="-1.124159187031197"><ele>575.0</ele><time>2026-03-31T12:43:20Z</time></trkpt><trkpt lat="42.7089001920611" lon="-1.1238582554354852"><ele>579.0</ele><time>2026-03-31T12:43:21Z</time></trkpt><trkpt lat="42.70904650076573" lon="-1.1235898273462905"><ele>583.0</ele><time>2026-03-31T12:43:22Z</time></trkpt><trkpt lat="42.7092227442744" lon="-1.1233773262250721"><ele>587.6666666666667</ele><time>2026-03-31T12:43:23Z</time></trkpt><trkpt lat="42.70937722269077" lon="-1.1231590559940798"><ele>592.3333333333334</ele><time>2026-03-31T12:43:24Z</time></trkpt><trkpt lat="42.709549494434796" lon="-1.1229759251908407"><ele>597.0</ele><time>2026-03-31T12:43:25Z</time></trkpt><trkpt lat="42.70973188996239" lon="-1.1228251845953718"><ele>597.0</ele><time>2026-03-31T12:43:26Z</time></trkpt><trkpt lat="42.70992874139366" lon="-1.122703070351291"><ele>597.0</ele><time>2026-03-31T12:43:27Z</time></trkpt><trkpt lat="42.71013628483307" lon="-1.1226042993668786"><ele>597.0</ele><time>2026-03-31T12:43:28Z</time></trkpt><trkpt lat="42.71035719355144" lon="-1.1225307606248003"><ele>593.0</ele><time>2026-03-31T12:43:29Z</time></trkpt><trkpt lat="42.71059013342103" lon="-1.1224723285003204"><ele>589.0</ele><time>2026-03-31T12:43:30Z</time></trkpt><trkpt lat="42.71083148526248" lon="-1.122428208106123"><ele>599.5</ele><time>2026-03-31T12:43:31Z</time></trkpt><trkpt lat="42.711080101067616" lon="-1.1223852684927265"><ele>610.0</ele><time>2026-03-31T12:43:32Z</time></trkpt><trkpt lat="42.711326608122384" lon="-1.1223306143481415"><ele>610.0</ele><time>2026-03-31T12:43:33Z</time></trkpt><trkpt lat="42.71157247353729" lon="-1.122279685457092"><ele>610.0</ele><time>2026-03-31T12:43:34Z</time></trkpt><trkpt lat="42.71181212623134" lon="-1.122234969712448"><ele>608.5</ele><time>2026-03-31T12:43:35Z</time></trkpt><trkpt lat="42.71204114250696" lon="-1.1221861307815324"><ele>607.0</ele><time>2026-03-31T12:43:36Z</time></trkpt><trkpt lat="42.7122569740758" lon="-1.1221306706894778"><ele>607.0</ele><time>2026-03-31T12:43:37Z</time></trkpt><trkpt lat="42.71247416473636" lon="-1.1220640188047233"><ele>607.0</ele><time>2026-03-31T12:43:38Z</time></trkpt><trkpt lat="42.712698973193255" lon="-1.1219783754266892"><ele>603.6666666666667</ele><time>2026-03-31T12:43:39Z</time></trkpt><trkpt lat="42.71291006959589" lon="-1.1218752951025661"><ele>600.3333333333334</ele><time>2026-03-31T12:43:40Z</time></trkpt><trkpt lat="42.71310273411441" lon="-1.1217623378060353"><ele>597.0</ele><time>2026-03-31T12:43:41Z</time></trkpt><trkpt lat="42.71330296733786" lon="-1.1216094935690142"><ele>598.6666666666666</ele><time>2026-03-31T12:43:42Z</time></trkpt><trkpt lat="42.7134857070448" lon="-1.1214298653411805"><ele>600.3333333333333</ele><time>2026-03-31T12:43:43Z</time></trkpt><trkpt lat="42.713663862016126" lon="-1.121250286888553"><ele>602.0</ele><time>2026-03-31T12:43:44Z</time></trkpt><trkpt lat="42.71384485953837" lon="-1.1210780925883628"><ele>602.0</ele><time>2026-03-31T12:43:45Z</time></trkpt><trkpt lat="42.71402888134163" lon="-1.1209140976393448"><ele>602.0</ele><time>2026-03-31T12:43:46Z</time></trkpt><trkpt lat="42.71422271110354" lon="-1.1207429203333212"><ele>602.5</ele><time>2026-03-31T12:43:47Z</time></trkpt><trkpt lat="42.714414022474315" lon="-1.1205659513627853"><ele>603.0</ele><time>2026-03-31T12:43:48Z</time></trkpt><trkpt lat="42.7146034130167" lon="-1.120384825899094"><ele>603.0</ele><time>2026-03-31T12:43:49Z</time></trkpt><trkpt lat="42.71479286642777" lon="-1.1202019965252357"><ele>603.0</ele><time>2026-03-31T12:43:50Z</time></trkpt><trkpt lat="42.714985000037" lon="-1.1200236538717367"><ele>604.0</ele><time>2026-03-31T12:43:51Z</time></trkpt><trkpt lat="42.71517266593535" lon="-1.1198488831675963"><ele>605.0</ele><time>2026-03-31T12:43:52Z</time></trkpt><trkpt lat="42.715358547756935" lon="-1.1196752836666597"><ele>605.0</ele><time>2026-03-31T12:43:53Z</time></trkpt><trkpt lat="42.71553808320033" lon="-1.1195049271756363"><ele>605.0</ele><time>2026-03-31T12:43:54Z</time></trkpt><trkpt lat="42.71570869208349" lon="-1.1193478475786"><ele>605.0</ele><time>2026-03-31T12:43:55Z</time></trkpt><trkpt lat="42.71588710712819" lon="-1.1191999744182781"><ele>609.5</ele><time>2026-03-31T12:43:56Z</time></trkpt><trkpt lat="42.71608816406744" lon="-1.1190626926713154"><ele>614.0</ele><time>2026-03-31T12:43:57Z</time></trkpt><trkpt lat="42.71631805258627" lon="-1.1189660549070113"><ele>614.0</ele><time>2026-03-31T12:43:58Z</time></trkpt><trkpt lat="42.71654494064868" lon="-1.1188856827974951"><ele>614.0</ele><time>2026-03-31T12:43:59Z</time></trkpt><trkpt lat="42.716742282434495" lon="-1.1187999641221742"><ele>614.0</ele><time>2026-03-31T12:44:00Z</time></trkpt><trkpt lat="42.716914814569755" lon="-1.1187033211205675"><ele>612.5</ele><time>2026-03-31T12:44:01Z</time></trkpt><trkpt lat="42.71705417622571" lon="-1.1185817754348404"><ele>611.0</ele><time>2026-03-31T12:44:02Z</time></trkpt><trkpt lat="42.71716608334257" lon="-1.1184550134315094"><ele>609.5</ele><time>2026-03-31T12:44:03Z</time></trkpt><trkpt lat="42.71726000750436" lon="-1.1183472662668472"><ele>608.0</ele><time>2026-03-31T12:44:04Z</time></trkpt><trkpt lat="42.71733414069341" lon="-1.1182719922395008"><ele>609.6</ele><time>2026-03-31T12:44:05Z</time></trkpt><trkpt lat="42.717404756441795" lon="-1.1182206018601353"><ele>611.1999999999999</ele><time>2026-03-31T12:44:06Z</time></trkpt><trkpt lat="42.71749778367659" lon="-1.1181629524498735"><ele>612.8</ele><time>2026-03-31T12:44:07Z</time></trkpt><trkpt lat="42.71759826173301" lon="-1.118132831129399"><ele>614.4</ele><time>2026-03-31T12:44:08Z</time></trkpt><trkpt lat="42.717733258768256" lon="-1.1181356101436215"><ele>616.0</ele><time>2026-03-31T12:44:09Z</time></trkpt><trkpt lat="42.71789334897616" lon="-1.1181797846512027"><ele>614.0</ele><time>2026-03-31T12:44:10Z</time></trkpt><trkpt lat="42.718079016047206" lon="-1.1182414565319605"><ele>612.0</ele><time>2026-03-31T12:44:11Z</time></trkpt><trkpt lat="42.71823812698562" lon="-1.1182898099158447"><ele>610.0</ele><time>2026-03-31T12:44:12Z</time></trkpt><trkpt lat="42.71837592454274" lon="-1.1183230827766657"><ele>610.0</ele><time>2026-03-31T12:44:13Z</time></trkpt><trkpt lat="42.718507753775334" lon="-1.1183412353786601"><ele>610.0</ele><time>2026-03-31T12:44:14Z</time></trkpt><trkpt lat="42.71864018229728" lon="-1.1183186094566622"><ele>610.0</ele><time>2026-03-31T12:44:15Z</time></trkpt><trkpt lat="42.71877108739474" lon="-1.118238899145209"><ele>610.0</ele><time>2026-03-31T12:44:16Z</time></trkpt><trkpt lat="42.71888576695921" lon="-1.1180948224131986"><ele>612.5</ele><time>2026-03-31T12:44:17Z</time></trkpt><trkpt lat="42.71897642399572" lon="-1.1179269465624215"><ele>615.0</ele><time>2026-03-31T12:44:18Z</time></trkpt><trkpt lat="42.71904981789454" lon="-1.1177513802981653"><ele>617.5</ele><time>2026-03-31T12:44:19Z</time></trkpt><trkpt lat="42.71912265981949" lon="-1.117587905412351"><ele>620.0</ele><time>2026-03-31T12:44:20Z</time></trkpt><trkpt lat="42.71917093150554" lon="-1.1174690999873438"><ele>620.0</ele><time>2026-03-31T12:44:21Z</time></trkpt><trkpt lat="42.719138063593846" lon="-1.117378859758199"><ele>620.0</ele><time>2026-03-31T12:44:22Z</time></trkpt><trkpt lat="42.71907006300587" lon="-1.1173400084675211"><ele>620.0</ele><time>2026-03-31T12:44:23Z</time></trkpt><trkpt lat="42.71899264577412" lon="-1.1173833087644593"><ele>620.0</ele><time>2026-03-31T12:44:24Z</time></trkpt><trkpt lat="42.718895333292586" lon="-1.1174737604653127"><ele>620.0</ele><time>2026-03-31T12:44:25Z</time></trkpt><trkpt lat="42.71876673406407" lon="-1.117559426982623"><ele>620.0</ele><time>2026-03-31T12:44:26Z</time></trkpt><trkpt lat="42.71861893829375" lon="-1.117601683678974"><ele>620.0</ele><time>2026-03-31T12:44:27Z</time></trkpt><trkpt lat="42.718464577800624" lon="-1.1175727306991339"><ele>620.0</ele><time>2026-03-31T12:44:28Z</time></trkpt><trkpt lat="42.718329860005056" lon="-1.1174866434706612"><ele>623.0</ele><time>2026-03-31T12:44:29Z</time></trkpt><trkpt lat="42.718222146444944" lon="-1.117384050289386"><ele>626.0</ele><time>2026-03-31T12:44:30Z</time></trkpt><trkpt lat="42.71813998214877" lon="-1.1172904791919216"><ele>629.0</ele><time>2026-03-31T12:44:31Z</time></trkpt><trkpt lat="42.71808359209924" lon="-1.1172144240978878"><ele>632.0</ele><time>2026-03-31T12:44:32Z</time></trkpt><trkpt lat="42.71808356853899" lon="-1.1170600917350366"><ele>635.0</ele><time>2026-03-31T12:44:34Z</time></trkpt><trkpt lat="42.718140312574505" lon="-1.1169587512727168"><ele>635.0</ele><time>2026-03-31T12:44:35Z</time></trkpt><trkpt lat="42.71819242407376" lon="-1.1168244255509296"><ele>635.0</ele><time>2026-03-31T12:44:36Z</time></trkpt><trkpt lat="42.71823298921404" lon="-1.1167172811373212"><ele>635.0</ele><time>2026-03-31T12:44:37Z</time></trkpt><trkpt lat="42.71826003509212" lon="-1.1166273532628173"><ele>635.0</ele><time>2026-03-31T12:44:38Z</time></trkpt><trkpt lat="42.71829038313628" lon="-1.1165519273149975"><ele>635.0</ele><time>2026-03-31T12:44:39Z</time></trkpt><trkpt lat="42.71836260120294" lon="-1.1164555583976432"><ele>635.0</ele><time>2026-03-31T12:44:41Z</time></trkpt><trkpt lat="42.71843487737891" lon="-1.1164669339211355"><ele>635.0</ele><time>2026-03-31T12:44:43Z</time></trkpt><trkpt lat="42.71837676696433" lon="-1.1165025757603384"><ele>635.0</ele><time>2026-03-31T12:45:03Z</time></trkpt><trkpt lat="42.718479005887374" lon="-1.116498045913969"><ele>635.0</ele><time>2026-03-31T12:46:04Z</time></trkpt><trkpt lat="42.71854373527977" lon="-1.1165088131610668"><ele>635.0</ele><time>2026-03-31T12:46:05Z</time></trkpt><trkpt lat="42.718653321094216" lon="-1.1165190407740617"><ele>635.0</ele><time>2026-03-31T12:46:07Z</time></trkpt><trkpt lat="42.718729843833785" lon="-1.116507935733079"><ele>635.0</ele><time>2026-03-31T12:46:09Z</time></trkpt><trkpt lat="42.718803456019764" lon="-1.116485031430045"><ele>635.0</ele><time>2026-03-31T12:46:11Z</time></trkpt><trkpt lat="42.71887348167899" lon="-1.1164016239422476"><ele>635.0</ele><time>2026-03-31T12:46:13Z</time></trkpt><trkpt lat="42.71892341835964" lon="-1.1162862869509336"><ele>635.0</ele><time>2026-03-31T12:46:15Z</time></trkpt><trkpt lat="42.71893411583381" lon="-1.116157504395842"><ele>635.0</ele><time>2026-03-31T12:46:17Z</time></trkpt><trkpt lat="42.71890563893108" lon="-1.1160447345764528"><ele>635.0</ele><time>2026-03-31T12:46:19Z</time></trkpt><trkpt lat="42.71887369864769" lon="-1.1159107574452853"><ele>635.0</ele><time>2026-03-31T12:46:21Z</time></trkpt><trkpt lat="42.71886025538531" lon="-1.1158205857398613"><ele>635.0</ele><time>2026-03-31T12:46:22Z</time></trkpt><trkpt lat="42.71884295294468" lon="-1.1157312345854906"><ele>635.0</ele><time>2026-03-31T12:46:23Z</time></trkpt><trkpt lat="42.71883404603848" lon="-1.1156296043898903"><ele>635.0</ele><time>2026-03-31T12:46:24Z</time></trkpt><trkpt lat="42.71881971194836" lon="-1.1155190400574049"><ele>635.0</ele><time>2026-03-31T12:46:25Z</time></trkpt><trkpt lat="42.718810111715236" lon="-1.1154066469957842"><ele>635.0</ele><time>2026-03-31T12:46:26Z</time></trkpt><trkpt lat="42.71878943568207" lon="-1.1152833745143267"><ele>634.0</ele><time>2026-03-31T12:46:27Z</time></trkpt><trkpt lat="42.71877466638971" lon="-1.11516039067438"><ele>633.0</ele><time>2026-03-31T12:46:28Z</time></trkpt><trkpt lat="42.718753384717516" lon="-1.1150309170744557"><ele>632.0</ele><time>2026-03-31T12:46:29Z</time></trkpt><trkpt lat="42.71872612564576" lon="-1.1148953354815379"><ele>631.0</ele><time>2026-03-31T12:46:30Z</time></trkpt><trkpt lat="42.718697129088255" lon="-1.114761603676338"><ele>630.0</ele><time>2026-03-31T12:46:31Z</time></trkpt><trkpt lat="42.718658332009184" lon="-1.1146272441501257"><ele>628.0</ele><time>2026-03-31T12:46:32Z</time></trkpt><trkpt lat="42.718616386879305" lon="-1.1144931792283803"><ele>626.0</ele><time>2026-03-31T12:46:33Z</time></trkpt><trkpt lat="42.71856198387318" lon="-1.1143592813126133"><ele>624.0</ele><time>2026-03-31T12:46:34Z</time></trkpt><trkpt lat="42.718496351316716" lon="-1.1142297021270706"><ele>622.0</ele><time>2026-03-31T12:46:35Z</time></trkpt><trkpt lat="42.71843075167888" lon="-1.1140930707579384"><ele>626.25</ele><time>2026-03-31T12:46:36Z</time></trkpt><trkpt lat="42.7183575804198" lon="-1.1139401332135515"><ele>630.5</ele><time>2026-03-31T12:46:37Z</time></trkpt><trkpt lat="42.718289297921636" lon="-1.113785925570766"><ele>634.75</ele><time>2026-03-31T12:46:38Z</time></trkpt><trkpt lat="42.71822248805239" lon="-1.113629272586716"><ele>639.0</ele><time>2026-03-31T12:46:39Z</time></trkpt><trkpt lat="42.718158897764" lon="-1.1134737701414448"><ele>639.0</ele><time>2026-03-31T12:46:40Z</time></trkpt><trkpt lat="42.718097321186896" lon="-1.1133161989903249"><ele>639.0</ele><time>2026-03-31T12:46:41Z</time></trkpt><trkpt lat="42.71804088832627" lon="-1.1131583461243848"><ele>639.0</ele><time>2026-03-31T12:46:42Z</time></trkpt><trkpt lat="42.717990852391324" lon="-1.1129869009883602"><ele>639.0</ele><time>2026-03-31T12:46:43Z</time></trkpt><trkpt lat="42.71795165344688" lon="-1.112805428555566"><ele>637.75</ele><time>2026-03-31T12:46:44Z</time></trkpt><trkpt lat="42.717914531815644" lon="-1.1126206814276969"><ele>636.5</ele><time>2026-03-31T12:46:45Z</time></trkpt><trkpt lat="42.71788433779323" lon="-1.1124309574743605"><ele>635.25</ele><time>2026-03-31T12:46:46Z</time></trkpt><trkpt lat="42.7178722813011" lon="-1.1122383445617103"><ele>634.0</ele><time>2026-03-31T12:46:47Z</time></trkpt><trkpt lat="42.717828142651555" lon="-1.1120449594889852"><ele>633.75</ele><time>2026-03-31T12:46:48Z</time></trkpt><trkpt lat="42.71778409687336" lon="-1.1118518259365011"><ele>633.5</ele><time>2026-03-31T12:46:49Z</time></trkpt><trkpt lat="42.717798122568155" lon="-1.111647382854159"><ele>633.25</ele><time>2026-03-31T12:46:50Z</time></trkpt><trkpt lat="42.71778497815181" lon="-1.111469969087509"><ele>633.0</ele><time>2026-03-31T12:46:51Z</time></trkpt><trkpt lat="42.71777358807724" lon="-1.111315440045775"><ele>633.3333333333334</ele><time>2026-03-31T12:46:52Z</time></trkpt><trkpt lat="42.71776781799006" lon="-1.1111813653789802"><ele>633.6666666666666</ele><time>2026-03-31T12:46:53Z</time></trkpt><trkpt lat="42.717763959422804" lon="-1.111066143411863"><ele>634.0</ele><time>2026-03-31T12:46:54Z</time></trkpt><trkpt lat="42.717758083836166" lon="-1.1109778576424265"><ele>634.3333333333333</ele><time>2026-03-31T12:46:55Z</time></trkpt><trkpt lat="42.71776171050269" lon="-1.1108744107310013"><ele>634.6666666666666</ele><time>2026-03-31T12:47:19Z</time></trkpt><trkpt lat="42.71776412096303" lon="-1.1107129661486088"><ele>635.0</ele><time>2026-03-31T12:47:20Z</time></trkpt><trkpt lat="42.71776191490522" lon="-1.1105454356321294"><ele>636.3333333333333</ele><time>2026-03-31T12:47:21Z</time></trkpt><trkpt lat="42.717758072714915" lon="-1.1103233357948477"><ele>637.6666666666666</ele><time>2026-03-31T12:47:22Z</time></trkpt><trkpt lat="42.717754300198095" lon="-1.110086448990919"><ele>639.0</ele><time>2026-03-31T12:47:23Z</time></trkpt><trkpt lat="42.71774971373302" lon="-1.109828190325286"><ele>650.3333333333334</ele><time>2026-03-31T12:47:24Z</time></trkpt><trkpt lat="42.717731593814214" lon="-1.1095538363796407"><ele>661.6666666666667</ele><time>2026-03-31T12:47:25Z</time></trkpt><trkpt lat="42.71770190322223" lon="-1.1092741392932532"><ele>673.0</ele><time>2026-03-31T12:47:26Z</time></trkpt><trkpt lat="42.71765709773026" lon="-1.1089756194860294"><ele>673.0</ele><time>2026-03-31T12:47:27Z</time></trkpt><trkpt lat="42.7176010489338" lon="-1.108656980413903"><ele>673.0</ele><time>2026-03-31T12:47:28Z</time></trkpt><trkpt lat="42.7175291645484" lon="-1.1083541600069637"><ele>669.3333333333334</ele><time>2026-03-31T12:47:29Z</time></trkpt><trkpt lat="42.71744247784398" lon="-1.1080891451951875"><ele>665.6666666666666</ele><time>2026-03-31T12:47:30Z</time></trkpt><trkpt lat="42.71733470335545" lon="-1.1078259221645388"><ele>662.0</ele><time>2026-03-31T12:47:31Z</time></trkpt><trkpt lat="42.71720952049966" lon="-1.1075658375836783"><ele>656.0</ele><time>2026-03-31T12:47:32Z</time></trkpt><trkpt lat="42.717076416728844" lon="-1.1073176317383508"><ele>650.0</ele><time>2026-03-31T12:47:33Z</time></trkpt><trkpt lat="42.71694273178164" lon="-1.1070693565099439"><ele>662.5</ele><time>2026-03-31T12:47:34Z</time></trkpt><trkpt lat="42.71681154464885" lon="-1.106819113894627"><ele>675.0</ele><time>2026-03-31T12:47:35Z</time></trkpt><trkpt lat="42.71668572245311" lon="-1.1065670474045715"><ele>675.0</ele><time>2026-03-31T12:47:36Z</time></trkpt><trkpt lat="42.71656192973954" lon="-1.106317223175291"><ele>675.0</ele><time>2026-03-31T12:47:37Z</time></trkpt><trkpt lat="42.7164458331387" lon="-1.106061974538334"><ele>675.0</ele><time>2026-03-31T12:47:38Z</time></trkpt><trkpt lat="42.71635994692408" lon="-1.1057779575731266"><ele>674.5</ele><time>2026-03-31T12:47:39Z</time></trkpt><trkpt lat="42.71631142391643" lon="-1.1054623470061977"><ele>674.0</ele><time>2026-03-31T12:47:40Z</time></trkpt><trkpt lat="42.716296501368596" lon="-1.105145307190538"><ele>677.5</ele><time>2026-03-31T12:47:41Z</time></trkpt><trkpt lat="42.71631140868447" lon="-1.1048106611746735"><ele>681.0</ele><time>2026-03-31T12:47:42Z</time></trkpt><trkpt lat="42.71636195112138" lon="-1.104491585045528"><ele>681.0</ele><time>2026-03-31T12:47:43Z</time></trkpt><trkpt lat="42.71642698741241" lon="-1.1041874265348952"><ele>681.0</ele><time>2026-03-31T12:47:44Z</time></trkpt><trkpt lat="42.7164581570635" lon="-1.1038714126419433"><ele>682.0</ele><time>2026-03-31T12:47:45Z</time></trkpt><trkpt lat="42.71644181584517" lon="-1.103542032735777"><ele>683.0</ele><time>2026-03-31T12:47:46Z</time></trkpt><trkpt lat="42.71640834345058" lon="-1.103200194502804"><ele>681.0</ele><time>2026-03-31T12:47:47Z</time></trkpt><trkpt lat="42.71633245637936" lon="-1.102875747134157"><ele>679.0</ele><time>2026-03-31T12:47:48Z</time></trkpt><trkpt lat="42.716263575488966" lon="-1.1025419371854925"><ele>676.0</ele><time>2026-03-31T12:47:49Z</time></trkpt><trkpt lat="42.71617220027344" lon="-1.1022215604341477"><ele>673.0</ele><time>2026-03-31T12:47:50Z</time></trkpt><trkpt lat="42.716085997673005" lon="-1.1018964114167686"><ele>687.5</ele><time>2026-03-31T12:47:51Z</time></trkpt><trkpt lat="42.71600716914978" lon="-1.1015726909539134"><ele>702.0</ele><time>2026-03-31T12:47:52Z</time></trkpt><trkpt lat="42.71593411783307" lon="-1.1012646328584372"><ele>702.0</ele><time>2026-03-31T12:47:53Z</time></trkpt><trkpt lat="42.715852232085695" lon="-1.1009688839260636"><ele>702.0</ele><time>2026-03-31T12:47:54Z</time></trkpt><trkpt lat="42.71573837843445" lon="-1.1006790629031695"><ele>694.5</ele><time>2026-03-31T12:47:55Z</time></trkpt><trkpt lat="42.715575332714565" lon="-1.100427554040513"><ele>687.0</ele><time>2026-03-31T12:47:56Z</time></trkpt><trkpt lat="42.71540357588704" lon="-1.1001986530947432"><ele>693.0</ele><time>2026-03-31T12:47:57Z</time></trkpt><trkpt lat="42.71522396762761" lon="-1.1000112944063725"><ele>699.0</ele><time>2026-03-31T12:47:58Z</time></trkpt><trkpt lat="42.715072907951026" lon="-1.0998211377109026"><ele>705.0</ele><time>2026-03-31T12:47:59Z</time></trkpt><trkpt lat="42.714932084791755" lon="-1.099637925418419"><ele>705.0</ele><time>2026-03-31T12:48:00Z</time></trkpt><trkpt lat="42.71482417046626" lon="-1.0993826635849726"><ele>705.0</ele><time>2026-03-31T12:48:01Z</time></trkpt><trkpt lat="42.714758892063145" lon="-1.0990758410751247"><ele>706.0</ele><time>2026-03-31T12:48:02Z</time></trkpt><trkpt lat="42.71473065175933" lon="-1.0987597160604874"><ele>707.0</ele><time>2026-03-31T12:48:03Z</time></trkpt><trkpt lat="42.71473990276237" lon="-1.0984376225308856"><ele>710.0</ele><time>2026-03-31T12:48:04Z</time></trkpt><trkpt lat="42.71475694829934" lon="-1.0981185023506985"><ele>713.0</ele><time>2026-03-31T12:48:05Z</time></trkpt><trkpt lat="42.71475860323048" lon="-1.0977968055549365"><ele>713.0</ele><time>2026-03-31T12:48:06Z</time></trkpt><trkpt lat="42.71480024614882" lon="-1.0974883152879906"><ele>713.0</ele><time>2026-03-31T12:48:07Z</time></trkpt><trkpt lat="42.71483638881108" lon="-1.0971719963074384"><ele>716.5</ele><time>2026-03-31T12:48:08Z</time></trkpt><trkpt lat="42.71489014700983" lon="-1.0968605640931208"><ele>720.0</ele><time>2026-03-31T12:48:09Z</time></trkpt><trkpt lat="42.71495024355767" lon="-1.096551563362056"><ele>722.3333333333334</ele><time>2026-03-31T12:48:10Z</time></trkpt><trkpt lat="42.71501965572214" lon="-1.096270573349177"><ele>724.6666666666667</ele><time>2026-03-31T12:48:11Z</time></trkpt><trkpt lat="42.715082530753136" lon="-1.096068640342116"><ele>727.0</ele><time>2026-03-31T12:48:12Z</time></trkpt><trkpt lat="42.71512918531769" lon="-1.0959260581644075"><ele>727.0</ele><time>2026-03-31T12:48:13Z</time></trkpt><trkpt lat="42.71516703612326" lon="-1.0958107138560729"><ele>727.0</ele><time>2026-03-31T12:48:14Z</time></trkpt><trkpt lat="42.715214684062815" lon="-1.0956766196587064"><ele>727.0</ele><time>2026-03-31T12:48:15Z</time></trkpt><trkpt lat="42.71526033858594" lon="-1.0955435565158966"><ele>727.0</ele><time>2026-03-31T12:48:16Z</time></trkpt><trkpt lat="42.71532252272135" lon="-1.0954973504086016"><ele>727.0</ele><time>2026-03-31T12:48:18Z</time></trkpt><trkpt lat="42.71534806479444" lon="-1.0953744562011145"><ele>726.2</ele><time>2026-03-31T12:49:21Z</time></trkpt><trkpt lat="42.715353560131376" lon="-1.0952554450720668"><ele>725.4000000000001</ele><time>2026-03-31T12:49:22Z</time></trkpt><trkpt lat="42.71539049967069" lon="-1.0951408992171436"><ele>724.5999999999999</ele><time>2026-03-31T12:49:23Z</time></trkpt><trkpt lat="42.71543982890574" lon="-1.0950149631458335"><ele>723.8</ele><time>2026-03-31T12:49:24Z</time></trkpt><trkpt lat="42.71547913246982" lon="-1.0948526255856086"><ele>723.0</ele><time>2026-03-31T12:49:25Z</time></trkpt><trkpt lat="42.715529955239255" lon="-1.0946776009164478"><ele>726.3333333333334</ele><time>2026-03-31T12:49:26Z</time></trkpt><trkpt lat="42.715585779055196" lon="-1.0944999601754442"><ele>729.6666666666667</ele><time>2026-03-31T12:49:27Z</time></trkpt><trkpt lat="42.71564195166825" lon="-1.0943175699286565"><ele>733.0</ele><time>2026-03-31T12:49:28Z</time></trkpt><trkpt lat="42.71572731958827" lon="-1.0941269329141066"><ele>732.3333333333334</ele><time>2026-03-31T12:49:29Z</time></trkpt><trkpt lat="42.71577107918574" lon="-1.0939211229349237"><ele>731.6666666666666</ele><time>2026-03-31T12:49:30Z</time></trkpt><trkpt lat="42.715847571174" lon="-1.0937145930761432"><ele>731.0</ele><time>2026-03-31T12:49:31Z</time></trkpt><trkpt lat="42.715941113114006" lon="-1.0935105656382176"><ele>731.0</ele><time>2026-03-31T12:49:32Z</time></trkpt><trkpt lat="42.71606001517092" lon="-1.0932918599013501"><ele>731.0</ele><time>2026-03-31T12:49:33Z</time></trkpt><trkpt lat="42.71619903768891" lon="-1.0930611982902296"><ele>731.0</ele><time>2026-03-31T12:49:34Z</time></trkpt><trkpt lat="42.71634419118393" lon="-1.0928052684394753"><ele>734.0</ele><time>2026-03-31T12:49:35Z</time></trkpt><trkpt lat="42.716463562051814" lon="-1.0925667190907575"><ele>737.0</ele><time>2026-03-31T12:49:36Z</time></trkpt><trkpt lat="42.716559679221675" lon="-1.0923489508065787"><ele>740.0</ele><time>2026-03-31T12:49:37Z</time></trkpt><trkpt lat="42.71666001882576" lon="-1.09209090139572"><ele>740.0</ele><time>2026-03-31T12:49:38Z</time></trkpt><trkpt lat="42.716788429651835" lon="-1.0918237533792954"><ele>740.0</ele><time>2026-03-31T12:49:39Z</time></trkpt><trkpt lat="42.71694380503203" lon="-1.0915937907429658"><ele>744.3333333333333</ele><time>2026-03-31T12:49:40Z</time></trkpt><trkpt lat="42.71711163157747" lon="-1.0913894062759382"><ele>748.6666666666666</ele><time>2026-03-31T12:49:41Z</time></trkpt><trkpt lat="42.717286915290465" lon="-1.0912119031523932"><ele>753.0</ele><time>2026-03-31T12:49:42Z</time></trkpt><trkpt lat="42.71745487248362" lon="-1.0910240844702666"><ele>753.0</ele><time>2026-03-31T12:49:43Z</time></trkpt><trkpt lat="42.71760466568594" lon="-1.0908071629160632"><ele>753.0</ele><time>2026-03-31T12:49:44Z</time></trkpt><trkpt lat="42.717700969684884" lon="-1.0905219153727885"><ele>753.0</ele><time>2026-03-31T12:49:45Z</time></trkpt><trkpt lat="42.71779868370896" lon="-1.090221659969085"><ele>762.5</ele><time>2026-03-31T12:49:46Z</time></trkpt><trkpt lat="42.717905075719855" lon="-1.0899125306472774"><ele>772.0</ele><time>2026-03-31T12:49:47Z</time></trkpt><trkpt lat="42.71799343002455" lon="-1.0895935851950702"><ele>772.0</ele><time>2026-03-31T12:49:48Z</time></trkpt><trkpt lat="42.71809990417226" lon="-1.0892809664039365"><ele>772.0</ele><time>2026-03-31T12:49:49Z</time></trkpt><trkpt lat="42.71819672531359" lon="-1.0889697063230717"><ele>772.5</ele><time>2026-03-31T12:49:50Z</time></trkpt><trkpt lat="42.718278743172526" lon="-1.0886442803389413"><ele>773.0</ele><time>2026-03-31T12:49:51Z</time></trkpt><trkpt lat="42.71833033741515" lon="-1.0883036611018273"><ele>776.5</ele><time>2026-03-31T12:49:52Z</time></trkpt><trkpt lat="42.71831661731964" lon="-1.0879702924158625"><ele>780.0</ele><time>2026-03-31T12:49:53Z</time></trkpt><trkpt lat="42.71827012808375" lon="-1.0876360881066256"><ele>782.5</ele><time>2026-03-31T12:49:54Z</time></trkpt><trkpt lat="42.71822586579691" lon="-1.0872966269295639"><ele>785.0</ele><time>2026-03-31T12:49:55Z</time></trkpt><trkpt lat="42.718179262313804" lon="-1.0869614317170957"><ele>785.0</ele><time>2026-03-31T12:49:56Z</time></trkpt><trkpt lat="42.71818838109303" lon="-1.0866181434206317"><ele>785.0</ele><time>2026-03-31T12:49:57Z</time></trkpt><trkpt lat="42.71820641726973" lon="-1.086269117310197"><ele>788.5</ele><time>2026-03-31T12:49:58Z</time></trkpt><trkpt lat="42.71815403417505" lon="-1.0859370776708037"><ele>792.0</ele><time>2026-03-31T12:49:59Z</time></trkpt><trkpt lat="42.71810764594053" lon="-1.0855904278689783"><ele>796.0</ele><time>2026-03-31T12:50:00Z</time></trkpt><trkpt lat="42.718041345644224" lon="-1.0852613786570067"><ele>800.0</ele><time>2026-03-31T12:50:01Z</time></trkpt><trkpt lat="42.71797895131349" lon="-1.0849693029730678"><ele>804.0</ele><time>2026-03-31T12:50:02Z</time></trkpt><trkpt lat="42.71792666760387" lon="-1.0847050068508266"><ele>808.0</ele><time>2026-03-31T12:50:03Z</time></trkpt><trkpt lat="42.71787961520962" lon="-1.0844742629040678"><ele>812.0</ele><time>2026-03-31T12:50:04Z</time></trkpt><trkpt lat="42.717810809595605" lon="-1.0842653259303183"><ele>815.0</ele><time>2026-03-31T12:50:05Z</time></trkpt><trkpt lat="42.71767409891417" lon="-1.0841093982680048"><ele>818.0</ele><time>2026-03-31T12:50:06Z</time></trkpt><trkpt lat="42.717513081710436" lon="-1.0839985659415807"><ele>821.0</ele><time>2026-03-31T12:50:07Z</time></trkpt><trkpt lat="42.71733193198223" lon="-1.0839608856406524"><ele>821.0</ele><time>2026-03-31T12:50:08Z</time></trkpt><trkpt lat="42.71715502685215" lon="-1.0839908447422484"><ele>821.0</ele><time>2026-03-31T12:50:09Z</time></trkpt><trkpt lat="42.716969951499344" lon="-1.084043223025062"><ele>821.0</ele><time>2026-03-31T12:50:10Z</time></trkpt><trkpt lat="42.71679837287118" lon="-1.0840366916338318"><ele>816.6666666666667</ele><time>2026-03-31T12:50:11Z</time></trkpt><trkpt lat="42.71665239011911" lon="-1.0839517054778642"><ele>812.3333333333333</ele><time>2026-03-31T12:50:12Z</time></trkpt><trkpt lat="42.71653146659791" lon="-1.0837763717449975"><ele>808.0</ele><time>2026-03-31T12:50:13Z</time></trkpt><trkpt lat="42.71646620473556" lon="-1.0835180154182629"><ele>807.0</ele><time>2026-03-31T12:50:14Z</time></trkpt><trkpt lat="42.71646818003126" lon="-1.0832553346499292"><ele>806.0</ele><time>2026-03-31T12:50:15Z</time></trkpt><trkpt lat="42.7165409813664" lon="-1.0830105561355656"><ele>805.0</ele><time>2026-03-31T12:50:16Z</time></trkpt><trkpt lat="42.7166631687566" lon="-1.0827969200650207"><ele>805.0</ele><time>2026-03-31T12:50:17Z</time></trkpt><trkpt lat="42.71681841465185" lon="-1.082604883305539"><ele>805.0</ele><time>2026-03-31T12:50:18Z</time></trkpt><trkpt lat="42.71696318458588" lon="-1.0823996055382326"><ele>805.0</ele><time>2026-03-31T12:50:19Z</time></trkpt><trkpt lat="42.71708800462113" lon="-1.0822046654662856"><ele>813.0</ele><time>2026-03-31T12:50:20Z</time></trkpt><trkpt lat="42.71719098359068" lon="-1.0820392628534077"><ele>821.0</ele><time>2026-03-31T12:50:21Z</time></trkpt><trkpt lat="42.717278600591506" lon="-1.0818540007101545"><ele>829.0</ele><time>2026-03-31T12:50:22Z</time></trkpt><trkpt lat="42.71731993336869" lon="-1.0816378806855063"><ele>831.6666666666666</ele><time>2026-03-31T12:50:23Z</time></trkpt><trkpt lat="42.71726161959192" lon="-1.081436791556919"><ele>834.3333333333333</ele><time>2026-03-31T12:50:24Z</time></trkpt><trkpt lat="42.71716802298303" lon="-1.0812866303365913"><ele>837.0</ele><time>2026-03-31T12:50:25Z</time></trkpt><trkpt lat="42.7170459579916" lon="-1.0811749628816945"><ele>832.6666666666667</ele><time>2026-03-31T12:50:26Z</time></trkpt><trkpt lat="42.71690105793976" lon="-1.081096815090617"><ele>828.3333333333334</ele><time>2026-03-31T12:50:27Z</time></trkpt><trkpt lat="42.71676192059873" lon="-1.0809647964695694"><ele>824.0</ele><time>2026-03-31T12:50:28Z</time></trkpt><trkpt lat="42.71663267524025" lon="-1.0807957331157423"><ele>829.0</ele><time>2026-03-31T12:50:29Z</time></trkpt><trkpt lat="42.71656310803095" lon="-1.0805425276853025"><ele>834.0</ele><time>2026-03-31T12:50:30Z</time></trkpt><trkpt lat="42.71649077090315" lon="-1.0802993210080085"><ele>839.0</ele><time>2026-03-31T12:50:31Z</time></trkpt><trkpt lat="42.716380465052744" lon="-1.080129254781815"><ele>839.0</ele><time>2026-03-31T12:50:32Z</time></trkpt><trkpt lat="42.71623563243505" lon="-1.0800613370268306"><ele>839.0</ele><time>2026-03-31T12:50:33Z</time></trkpt><trkpt lat="42.716073509927476" lon="-1.0799712077574697"><ele>839.0</ele><time>2026-03-31T12:50:34Z</time></trkpt><trkpt lat="42.71596026325705" lon="-1.079856682762048"><ele>837.3333333333334</ele><time>2026-03-31T12:50:35Z</time></trkpt><trkpt lat="42.71587616031898" lon="-1.0796854013256598"><ele>835.6666666666667</ele><time>2026-03-31T12:50:36Z</time></trkpt><trkpt lat="42.71583879633469" lon="-1.0794286165753506"><ele>834.0</ele><time>2026-03-31T12:50:37Z</time></trkpt><trkpt lat="42.715803391909034" lon="-1.0791589242948736"><ele>836.6666666666667</ele><time>2026-03-31T12:50:38Z</time></trkpt><trkpt lat="42.71576098008098" lon="-1.0788785082178625"><ele>839.3333333333334</ele><time>2026-03-31T12:50:39Z</time></trkpt><trkpt lat="42.7157165366239" lon="-1.0785952750099306"><ele>842.0</ele><time>2026-03-31T12:50:40Z</time></trkpt><trkpt lat="42.71567030769501" lon="-1.0783128029431288"><ele>844.6666666666667</ele><time>2026-03-31T12:50:41Z</time></trkpt><trkpt lat="42.71562445107573" lon="-1.0780247432614027"><ele>847.3333333333333</ele><time>2026-03-31T12:50:42Z</time></trkpt><trkpt lat="42.715577850179976" lon="-1.0777393464928073"><ele>850.0</ele><time>2026-03-31T12:50:43Z</time></trkpt><trkpt lat="42.71553482638423" lon="-1.077457735078144"><ele>852.6666666666666</ele><time>2026-03-31T12:50:44Z</time></trkpt><trkpt lat="42.71549412260708" lon="-1.0771642191412183"><ele>855.3333333333333</ele><time>2026-03-31T12:50:45Z</time></trkpt><trkpt lat="42.715455771830236" lon="-1.0768783025404807"><ele>858.0</ele><time>2026-03-31T12:50:46Z</time></trkpt><trkpt lat="42.71541037363461" lon="-1.0766081367470688"><ele>855.3333333333333</ele><time>2026-03-31T12:50:47Z</time></trkpt><trkpt lat="42.715354325211614" lon="-1.0763422387906996"><ele>852.6666666666666</ele><time>2026-03-31T12:50:48Z</time></trkpt><trkpt lat="42.71527719317613" lon="-1.0760815801225894"><ele>850.0</ele><time>2026-03-31T12:50:49Z</time></trkpt><trkpt lat="42.715182150429406" lon="-1.0758343542401267"><ele>852.0</ele><time>2026-03-31T12:50:50Z</time></trkpt><trkpt lat="42.71509841380093" lon="-1.0755932172555813"><ele>854.0</ele><time>2026-03-31T12:50:51Z</time></trkpt><trkpt lat="42.71505578143765" lon="-1.0753233375782292"><ele>856.0</ele><time>2026-03-31T12:50:52Z</time></trkpt><trkpt lat="42.715048605494935" lon="-1.0750329121283462"><ele>855.0</ele><time>2026-03-31T12:50:53Z</time></trkpt><trkpt lat="42.715073619182824" lon="-1.0747523806565136"><ele>854.0</ele><time>2026-03-31T12:50:54Z</time></trkpt><trkpt lat="42.71513218291773" lon="-1.0744779470828099"><ele>853.0</ele><time>2026-03-31T12:50:55Z</time></trkpt><trkpt lat="42.71522199184139" lon="-1.0742168073540224"><ele>854.6666666666666</ele><time>2026-03-31T12:50:56Z</time></trkpt><trkpt lat="42.71533871267703" lon="-1.073979423024026"><ele>856.3333333333333</ele><time>2026-03-31T12:50:57Z</time></trkpt><trkpt lat="42.715482425744355" lon="-1.0737709332468839"><ele>858.0</ele><time>2026-03-31T12:50:58Z</time></trkpt><trkpt lat="42.71563789971834" lon="-1.0735684666266267"><ele>858.0</ele><time>2026-03-31T12:50:59Z</time></trkpt><trkpt lat="42.715780231421846" lon="-1.07335943736168"><ele>858.0</ele><time>2026-03-31T12:51:00Z</time></trkpt><trkpt lat="42.715915922622294" lon="-1.073145038614936"><ele>858.0</ele><time>2026-03-31T12:51:01Z</time></trkpt><trkpt lat="42.716033196062696" lon="-1.072930206713978"><ele>859.3333333333333</ele><time>2026-03-31T12:51:02Z</time></trkpt><trkpt lat="42.716118292568815" lon="-1.07269362008276"><ele>860.6666666666666</ele><time>2026-03-31T12:51:03Z</time></trkpt><trkpt lat="42.71616551895899" lon="-1.0724363771429244"><ele>862.0</ele><time>2026-03-31T12:51:04Z</time></trkpt><trkpt lat="42.71618015347048" lon="-1.0721779409943633"><ele>862.0</ele><time>2026-03-31T12:51:05Z</time></trkpt><trkpt lat="42.71616742084628" lon="-1.0719170047068438"><ele>862.0</ele><time>2026-03-31T12:51:06Z</time></trkpt><trkpt lat="42.71613102951665" lon="-1.0716768900599711"><ele>862.0</ele><time>2026-03-31T12:51:07Z</time></trkpt><trkpt lat="42.71609652745101" lon="-1.071459948323065"><ele>861.6</ele><time>2026-03-31T12:51:08Z</time></trkpt><trkpt lat="42.716068797856025" lon="-1.071269219116639"><ele>861.2</ele><time>2026-03-31T12:51:09Z</time></trkpt><trkpt lat="42.71604525980681" lon="-1.0710931308121625"><ele>860.8</ele><time>2026-03-31T12:51:10Z</time></trkpt><trkpt lat="42.71602304305843" lon="-1.0709599165966388"><ele>860.4</ele><time>2026-03-31T12:51:11Z</time></trkpt><trkpt lat="42.71600401040975" lon="-1.0708734222191234"><ele>860.0</ele><time>2026-03-31T12:51:12Z</time></trkpt><trkpt lat="42.715974223335294" lon="-1.070791252291642"><ele>860.0</ele><time>2026-03-31T12:51:14Z</time></trkpt><trkpt lat="42.715875754297244" lon="-1.0708380289654957"><ele>860.0</ele><time>2026-03-31T12:51:18Z</time></trkpt><trkpt lat="42.715860486770026" lon="-1.0707392780780238"><ele>860.0</ele><time>2026-03-31T12:53:19Z</time></trkpt><trkpt lat="42.71594204813243" lon="-1.0705948773361582"><ele>860.0</ele><time>2026-03-31T12:53:22Z</time></trkpt><trkpt lat="42.715964894850835" lon="-1.070445097416889"><ele>860.0</ele><time>2026-03-31T12:53:24Z</time></trkpt><trkpt lat="42.71596143715881" lon="-1.0703460498801824"><ele>860.8</ele><time>2026-03-31T12:53:25Z</time></trkpt><trkpt lat="42.715943307336715" lon="-1.0702394059937055"><ele>861.6</ele><time>2026-03-31T12:53:26Z</time></trkpt><trkpt lat="42.71592635108336" lon="-1.070156507195899"><ele>862.4000000000001</ele><time>2026-03-31T12:53:27Z</time></trkpt><trkpt lat="42.715911966012726" lon="-1.07004609326666"><ele>863.2</ele><time>2026-03-31T12:53:28Z</time></trkpt><trkpt lat="42.71588590145244" lon="-1.0698634746872726"><ele>864.0</ele><time>2026-03-31T12:53:29Z</time></trkpt><trkpt lat="42.715856698175344" lon="-1.0696581564617114"><ele>865.0</ele><time>2026-03-31T12:53:30Z</time></trkpt><trkpt lat="42.715831219346526" lon="-1.0694578356237068"><ele>866.0</ele><time>2026-03-31T12:53:31Z</time></trkpt><trkpt lat="42.715802917169846" lon="-1.0692455236274914"><ele>867.0</ele><time>2026-03-31T12:53:32Z</time></trkpt><trkpt lat="42.71577476654895" lon="-1.0690291597242465"><ele>868.0</ele><time>2026-03-31T12:53:33Z</time></trkpt><trkpt lat="42.71574386201757" lon="-1.0688127049056628"><ele>869.0</ele><time>2026-03-31T12:53:34Z</time></trkpt><trkpt lat="42.71570964464587" lon="-1.0685807740627642"><ele>870.0</ele><time>2026-03-31T12:53:35Z</time></trkpt><trkpt lat="42.71566870680385" lon="-1.0683389848319353"><ele>872.3333333333333</ele><time>2026-03-31T12:53:36Z</time></trkpt><trkpt lat="42.71561566298115" lon="-1.068097113333535"><ele>874.6666666666666</ele><time>2026-03-31T12:53:37Z</time></trkpt><trkpt lat="42.715558205846975" lon="-1.067892742031797"><ele>877.0</ele><time>2026-03-31T12:53:38Z</time></trkpt><trkpt lat="42.715486618359094" lon="-1.0676788265869397"><ele>877.0</ele><time>2026-03-31T12:53:39Z</time></trkpt><trkpt lat="42.71540007554916" lon="-1.0674606041088341"><ele>877.0</ele><time>2026-03-31T12:53:40Z</time></trkpt><trkpt lat="42.715301706298185" lon="-1.067238416818921"><ele>877.0</ele><time>2026-03-31T12:53:41Z</time></trkpt><trkpt lat="42.715194988456226" lon="-1.0670166255761322"><ele>877.3333333333333</ele><time>2026-03-31T12:53:42Z</time></trkpt><trkpt lat="42.71508663478382" lon="-1.0667935141544655"><ele>877.6666666666667</ele><time>2026-03-31T12:53:43Z</time></trkpt><trkpt lat="42.71497675343359" lon="-1.06657276880041"><ele>878.0</ele><time>2026-03-31T12:53:44Z</time></trkpt><trkpt lat="42.71488238643362" lon="-1.066382460314226"><ele>878.0</ele><time>2026-03-31T12:53:45Z</time></trkpt><trkpt lat="42.71479900070533" lon="-1.0661993663283913"><ele>878.0</ele><time>2026-03-31T12:53:46Z</time></trkpt><trkpt lat="42.71472137798739" lon="-1.066012486584232"><ele>878.0</ele><time>2026-03-31T12:53:47Z</time></trkpt><trkpt lat="42.71466547162093" lon="-1.0658085045902175"><ele>878.3333333333334</ele><time>2026-03-31T12:53:48Z</time></trkpt><trkpt lat="42.71464773785594" lon="-1.065596157912407"><ele>878.6666666666667</ele><time>2026-03-31T12:53:49Z</time></trkpt><trkpt lat="42.7146593180867" lon="-1.0653809269707948"><ele>879.0</ele><time>2026-03-31T12:53:50Z</time></trkpt><trkpt lat="42.71470112869526" lon="-1.0651786889639492"><ele>879.0</ele><time>2026-03-31T12:53:51Z</time></trkpt><trkpt lat="42.714775913186244" lon="-1.0649816855611935"><ele>879.0</ele><time>2026-03-31T12:53:52Z</time></trkpt><trkpt lat="42.71488532890965" lon="-1.0648070553644269"><ele>879.0</ele><time>2026-03-31T12:53:53Z</time></trkpt><trkpt lat="42.715022846688704" lon="-1.06465917471535"><ele>878.6666666666667</ele><time>2026-03-31T12:53:54Z</time></trkpt><trkpt lat="42.71518374451945" lon="-1.064553086520542"><ele>878.3333333333334</ele><time>2026-03-31T12:53:55Z</time></trkpt><trkpt lat="42.715360263771615" lon="-1.0644857187461612"><ele>878.0</ele><time>2026-03-31T12:53:56Z</time></trkpt><trkpt lat="42.71555175779763" lon="-1.0644509031694678"><ele>879.0</ele><time>2026-03-31T12:53:57Z</time></trkpt><trkpt lat="42.71575017343733" lon="-1.064404283223994"><ele>880.0</ele><time>2026-03-31T12:53:58Z</time></trkpt><trkpt lat="42.715953475248895" lon="-1.0643259213245877"><ele>881.0</ele><time>2026-03-31T12:53:59Z</time></trkpt><trkpt lat="42.716155836252305" lon="-1.0642278194368011"><ele>881.3333333333334</ele><time>2026-03-31T12:54:00Z</time></trkpt><trkpt lat="42.716355052237205" lon="-1.064120150119224"><ele>881.6666666666667</ele><time>2026-03-31T12:54:01Z</time></trkpt><trkpt lat="42.71654650690525" lon="-1.0640060104437898"><ele>882.0</ele><time>2026-03-31T12:54:02Z</time></trkpt><trkpt lat="42.71673059073721" lon="-1.063889444324322"><ele>884.0</ele><time>2026-03-31T12:54:03Z</time></trkpt><trkpt lat="42.71690320522327" lon="-1.0637750486714728"><ele>886.0</ele><time>2026-03-31T12:54:04Z</time></trkpt><trkpt lat="42.71706064209621" lon="-1.0636660729781073"><ele>888.0</ele><time>2026-03-31T12:54:05Z</time></trkpt><trkpt lat="42.717200342988384" lon="-1.0635633756760163"><ele>888.0</ele><time>2026-03-31T12:54:06Z</time></trkpt><trkpt lat="42.71732715617291" lon="-1.06343605139261"><ele>888.0</ele><time>2026-03-31T12:54:07Z</time></trkpt><trkpt lat="42.71743734125501" lon="-1.0632606036776426"><ele>888.0</ele><time>2026-03-31T12:54:08Z</time></trkpt><trkpt lat="42.71752072914608" lon="-1.0630511419283446"><ele>887.6666666666667</ele><time>2026-03-31T12:54:09Z</time></trkpt><trkpt lat="42.71757664192704" lon="-1.0628168934053253"><ele>887.3333333333334</ele><time>2026-03-31T12:54:10Z</time></trkpt><trkpt lat="42.717602402362985" lon="-1.0625598535006873"><ele>887.0</ele><time>2026-03-31T12:54:11Z</time></trkpt><trkpt lat="42.71760209776957" lon="-1.0622862276491927"><ele>887.0</ele><time>2026-03-31T12:54:12Z</time></trkpt><trkpt lat="42.717580329490815" lon="-1.0620013074542045"><ele>887.0</ele><time>2026-03-31T12:54:13Z</time></trkpt><trkpt lat="42.71754727736544" lon="-1.0616997650519724"><ele>887.0</ele><time>2026-03-31T12:54:14Z</time></trkpt><trkpt lat="42.71750595425876" lon="-1.0613961638237361"><ele>887.5</ele><time>2026-03-31T12:54:15Z</time></trkpt><trkpt lat="42.717473841407674" lon="-1.0610895153425264"><ele>888.0</ele><time>2026-03-31T12:54:16Z</time></trkpt><trkpt lat="42.71744952282797" lon="-1.0607849610502322"><ele>888.6666666666667</ele><time>2026-03-31T12:54:17Z</time></trkpt><trkpt lat="42.71742434099911" lon="-1.0604864907744076"><ele>889.3333333333334</ele><time>2026-03-31T12:54:18Z</time></trkpt><trkpt lat="42.717393684583506" lon="-1.0601995143738001"><ele>890.0</ele><time>2026-03-31T12:54:19Z</time></trkpt><trkpt lat="42.71740166518527" lon="-1.0599180491664444"><ele>891.3333333333334</ele><time>2026-03-31T12:54:20Z</time></trkpt><trkpt lat="42.71744418525418" lon="-1.0596375556467017"><ele>892.6666666666667</ele><time>2026-03-31T12:54:21Z</time></trkpt><trkpt lat="42.71751076881376" lon="-1.059368609830972"><ele>894.0</ele><time>2026-03-31T12:54:22Z</time></trkpt><trkpt lat="42.717586705599835" lon="-1.0590924142194376"><ele>894.3333333333333</ele><time>2026-03-31T12:54:23Z</time></trkpt><trkpt lat="42.71765781099884" lon="-1.0588141469213619"><ele>894.6666666666666</ele><time>2026-03-31T12:54:24Z</time></trkpt><trkpt lat="42.717697002361135" lon="-1.0585251845720212"><ele>895.0</ele><time>2026-03-31T12:54:25Z</time></trkpt><trkpt lat="42.71768973538969" lon="-1.0582348933598904"><ele>897.0</ele><time>2026-03-31T12:54:26Z</time></trkpt><trkpt lat="42.71764387695118" lon="-1.057942254883787"><ele>899.0</ele><time>2026-03-31T12:54:27Z</time></trkpt><trkpt lat="42.71757013176718" lon="-1.0576557412843437"><ele>901.0</ele><time>2026-03-31T12:54:28Z</time></trkpt><trkpt lat="42.717475749926976" lon="-1.0573798477654301"><ele>905.0</ele><time>2026-03-31T12:54:29Z</time></trkpt><trkpt lat="42.71736663314003" lon="-1.0571048295707832"><ele>909.0</ele><time>2026-03-31T12:54:30Z</time></trkpt><trkpt lat="42.71726420170447" lon="-1.0568287268230052"><ele>911.3333333333333</ele><time>2026-03-31T12:54:31Z</time></trkpt><trkpt lat="42.717171464037584" lon="-1.0565505605483108"><ele>913.6666666666666</ele><time>2026-03-31T12:54:32Z</time></trkpt><trkpt lat="42.71708456890873" lon="-1.0562723552731215"><ele>916.0</ele><time>2026-03-31T12:54:33Z</time></trkpt><trkpt lat="42.716993119885714" lon="-1.0559922019098318"><ele>918.0</ele><time>2026-03-31T12:54:34Z</time></trkpt><trkpt lat="42.71690681450058" lon="-1.0557199958456702"><ele>920.0</ele><time>2026-03-31T12:54:35Z</time></trkpt><trkpt lat="42.71683796380894" lon="-1.055430675424492"><ele>922.0</ele><time>2026-03-31T12:54:36Z</time></trkpt><trkpt lat="42.71681264792435" lon="-1.0551323120751892"><ele>922.6666666666666</ele><time>2026-03-31T12:54:37Z</time></trkpt><trkpt lat="42.71682879881686" lon="-1.054829795497478"><ele>923.3333333333333</ele><time>2026-03-31T12:54:38Z</time></trkpt><trkpt lat="42.71688175713285" lon="-1.0545311450593446"><ele>924.0</ele><time>2026-03-31T12:54:39Z</time></trkpt><trkpt lat="42.71696345674602" lon="-1.0542426884818685"><ele>922.5</ele><time>2026-03-31T12:54:40Z</time></trkpt><trkpt lat="42.717023264970436" lon="-1.0539470758915874"><ele>921.0</ele><time>2026-03-31T12:54:41Z</time></trkpt><trkpt lat="42.7171426407424" lon="-1.0536674400250134"><ele>921.0</ele><time>2026-03-31T12:54:42Z</time></trkpt><trkpt lat="42.71722166286915" lon="-1.0533719469854588"><ele>921.0</ele><time>2026-03-31T12:54:43Z</time></trkpt><trkpt lat="42.717297944948996" lon="-1.0530827008255244"><ele>920.0</ele><time>2026-03-31T12:54:44Z</time></trkpt><trkpt lat="42.71737198327762" lon="-1.052793432282325"><ele>919.0</ele><time>2026-03-31T12:54:45Z</time></trkpt><trkpt lat="42.71743296756097" lon="-1.0524969991728188"><ele>919.3333333333333</ele><time>2026-03-31T12:54:46Z</time></trkpt><trkpt lat="42.71746969159183" lon="-1.0521997945434964"><ele>919.6666666666667</ele><time>2026-03-31T12:54:47Z</time></trkpt><trkpt lat="42.717482080571465" lon="-1.051894662806898"><ele>920.0</ele><time>2026-03-31T12:54:48Z</time></trkpt><trkpt lat="42.71748443849182" lon="-1.0515898750206707"><ele>921.0</ele><time>2026-03-31T12:54:49Z</time></trkpt><trkpt lat="42.71750299838466" lon="-1.0512811208132788"><ele>922.0</ele><time>2026-03-31T12:54:50Z</time></trkpt><trkpt lat="42.71755721830028" lon="-1.0509839760522648"><ele>923.0</ele><time>2026-03-31T12:54:51Z</time></trkpt><trkpt lat="42.71764164942229" lon="-1.0506998504203935"><ele>924.0</ele><time>2026-03-31T12:54:52Z</time></trkpt><trkpt lat="42.71774542114474" lon="-1.050407520581846"><ele>928.5</ele><time>2026-03-31T12:54:53Z</time></trkpt><trkpt lat="42.71785469850776" lon="-1.0501176872138862"><ele>933.0</ele><time>2026-03-31T12:54:54Z</time></trkpt><trkpt lat="42.71795667978941" lon="-1.0498247526077427"><ele>933.0</ele><time>2026-03-31T12:54:55Z</time></trkpt><trkpt lat="42.71804855959311" lon="-1.0495370361066994"><ele>933.0</ele><time>2026-03-31T12:54:56Z</time></trkpt><trkpt lat="42.71813594860038" lon="-1.0492563840066411"><ele>933.5</ele><time>2026-03-31T12:54:57Z</time></trkpt><trkpt lat="42.718203798290894" lon="-1.0489708363265857"><ele>934.0</ele><time>2026-03-31T12:54:58Z</time></trkpt><trkpt lat="42.71823949447925" lon="-1.0486613635811048"><ele>934.0</ele><time>2026-03-31T12:54:59Z</time></trkpt><trkpt lat="42.71824701835025" lon="-1.0483385782884878"><ele>934.0</ele><time>2026-03-31T12:55:00Z</time></trkpt><trkpt lat="42.7182310632847" lon="-1.0480330573786256"><ele>935.6666666666666</ele><time>2026-03-31T12:55:01Z</time></trkpt><trkpt lat="42.71817849787608" lon="-1.0477533684149363"><ele>937.3333333333333</ele><time>2026-03-31T12:55:02Z</time></trkpt><trkpt lat="42.71810778566795" lon="-1.0474989636460572"><ele>939.0</ele><time>2026-03-31T12:55:03Z</time></trkpt><trkpt lat="42.718052948180684" lon="-1.0472484982946848"><ele>940.0</ele><time>2026-03-31T12:55:04Z</time></trkpt><trkpt lat="42.71805982349811" lon="-1.0469861454368505"><ele>941.0</ele><time>2026-03-31T12:55:05Z</time></trkpt><trkpt lat="42.71811851009885" lon="-1.0467207489448873"><ele>942.0</ele><time>2026-03-31T12:55:06Z</time></trkpt><trkpt lat="42.71820969296288" lon="-1.0464741416567664"><ele>942.6666666666667</ele><time>2026-03-31T12:55:07Z</time></trkpt><trkpt lat="42.71830982938984" lon="-1.0462232720451479"><ele>943.3333333333334</ele><time>2026-03-31T12:55:08Z</time></trkpt><trkpt lat="42.718413260083246" lon="-1.0459653339238193"><ele>944.0</ele><time>2026-03-31T12:55:09Z</time></trkpt><trkpt lat="42.71850943016534" lon="-1.0457006370349113"><ele>948.0</ele><time>2026-03-31T12:55:10Z</time></trkpt><trkpt lat="42.71859662422672" lon="-1.0454467818675484"><ele>952.0</ele><time>2026-03-31T12:55:11Z</time></trkpt><trkpt lat="42.718674085412154" lon="-1.0452165676269705"><ele>956.0</ele><time>2026-03-31T12:55:12Z</time></trkpt><trkpt lat="42.718727658260185" lon="-1.0450027352964697"><ele>953.75</ele><time>2026-03-31T12:55:13Z</time></trkpt><trkpt lat="42.71874328301373" lon="-1.0447886421599"><ele>951.5</ele><time>2026-03-31T12:55:14Z</time></trkpt><trkpt lat="42.718728245478864" lon="-1.044586060212069"><ele>949.25</ele><time>2026-03-31T12:55:15Z</time></trkpt><trkpt lat="42.71871257004688" lon="-1.0443969732875529"><ele>947.0</ele><time>2026-03-31T12:55:16Z</time></trkpt><trkpt lat="42.718707859517956" lon="-1.0442264664286354"><ele>946.5000000000001</ele><time>2026-03-31T12:55:17Z</time></trkpt><trkpt lat="42.718719482420525" lon="-1.0440924962074543"><ele>946.0</ele><time>2026-03-31T12:55:18Z</time></trkpt><trkpt lat="42.71876075701124" lon="-1.0439810534278744"><ele>945.5</ele><time>2026-03-31T12:55:19Z</time></trkpt><trkpt lat="42.7188141260321" lon="-1.0439008647392216"><ele>945.0</ele><time>2026-03-31T12:55:20Z</time></trkpt><trkpt lat="42.71888434680356" lon="-1.0437966394485247"><ele>944.5000000000001</ele><time>2026-03-31T12:55:22Z</time></trkpt><trkpt lat="42.71894500366719" lon="-1.043749603435137"><ele>944.0</ele><time>2026-03-31T12:55:24Z</time></trkpt><trkpt lat="42.71892247310826" lon="-1.0438593987677116"><ele>944.0</ele><time>2026-03-31T13:06:20Z</time></trkpt><trkpt lat="42.71896717898141" lon="-1.0439558850517878"><ele>944.0000000000001</ele><time>2026-03-31T13:06:22Z</time></trkpt><trkpt lat="42.71902153662573" lon="-1.0440017761298102"><ele>944.0000000000001</ele><time>2026-03-31T13:06:23Z</time></trkpt><trkpt lat="42.71909466159599" lon="-1.0440904069429258"><ele>944.0</ele><time>2026-03-31T13:06:24Z</time></trkpt><trkpt lat="42.71916181584691" lon="-1.044210600205729"><ele>944.0</ele><time>2026-03-31T13:06:25Z</time></trkpt><trkpt lat="42.7192241025755" lon="-1.0443518206564677"><ele>944.75</ele><time>2026-03-31T13:06:26Z</time></trkpt><trkpt lat="42.71929609032431" lon="-1.0444966195277727"><ele>945.5</ele><time>2026-03-31T13:06:27Z</time></trkpt><trkpt lat="42.71937670249046" lon="-1.0446384592636355"><ele>946.25</ele><time>2026-03-31T13:06:28Z</time></trkpt><trkpt lat="42.719459988265925" lon="-1.044777029284949"><ele>947.0</ele><time>2026-03-31T13:06:29Z</time></trkpt><trkpt lat="42.71955707321275" lon="-1.0449110103078494"><ele>947.25</ele><time>2026-03-31T13:06:30Z</time></trkpt><trkpt lat="42.71967622860819" lon="-1.0450179178328918"><ele>947.5</ele><time>2026-03-31T13:06:31Z</time></trkpt><trkpt lat="42.719812734668935" lon="-1.0450886472525587"><ele>947.75</ele><time>2026-03-31T13:06:32Z</time></trkpt><trkpt lat="42.71995008228411" lon="-1.0451275612053668"><ele>948.0</ele><time>2026-03-31T13:06:33Z</time></trkpt><trkpt lat="42.720077814033715" lon="-1.045150667581805"><ele>948.0</ele><time>2026-03-31T13:06:34Z</time></trkpt><trkpt lat="42.72019858662515" lon="-1.0451594070904506"><ele>948.0</ele><time>2026-03-31T13:06:35Z</time></trkpt><trkpt lat="42.72031465741464" lon="-1.0451312369535513"><ele>948.0</ele><time>2026-03-31T13:06:36Z</time></trkpt><trkpt lat="42.72040858311305" lon="-1.045027948075643"><ele>948.0</ele><time>2026-03-31T13:06:37Z</time></trkpt><trkpt lat="42.72049071456656" lon="-1.0449144665218804"><ele>945.0</ele><time>2026-03-31T13:06:38Z</time></trkpt><trkpt lat="42.72055360248552" lon="-1.0447639418549974"><ele>942.0</ele><time>2026-03-31T13:06:39Z</time></trkpt><trkpt lat="42.72059163493301" lon="-1.0446000227141925"><ele>939.0</ele><time>2026-03-31T13:06:40Z</time></trkpt><trkpt lat="42.72061833222179" lon="-1.0444319627847105"><ele>936.0</ele><time>2026-03-31T13:06:41Z</time></trkpt><trkpt lat="42.72067253531505" lon="-1.0442783743597421"><ele>936.0</ele><time>2026-03-31T13:06:42Z</time></trkpt><trkpt lat="42.720766941801436" lon="-1.044150981097526"><ele>936.0</ele><time>2026-03-31T13:06:43Z</time></trkpt><trkpt lat="42.72089114081536" lon="-1.0440511909234742"><ele>936.0</ele><time>2026-03-31T13:06:44Z</time></trkpt><trkpt lat="42.72102928350089" lon="-1.0439538845444887"><ele>936.0</ele><time>2026-03-31T13:06:45Z</time></trkpt><trkpt lat="42.72116722926172" lon="-1.0438490083871035"><ele>931.25</ele><time>2026-03-31T13:06:46Z</time></trkpt><trkpt lat="42.72128741734171" lon="-1.0437581180702105"><ele>926.5</ele><time>2026-03-31T13:06:47Z</time></trkpt><trkpt lat="42.721405935633" lon="-1.0436841701126751"><ele>921.75</ele><time>2026-03-31T13:06:48Z</time></trkpt><trkpt lat="42.72152391699948" lon="-1.0436806838848323"><ele>917.0</ele><time>2026-03-31T13:06:49Z</time></trkpt><trkpt lat="42.72163125329029" lon="-1.0437542075867294"><ele>917.0</ele><time>2026-03-31T13:06:50Z</time></trkpt><trkpt lat="42.72172503954287" lon="-1.0438721432832048"><ele>917.0</ele><time>2026-03-31T13:06:51Z</time></trkpt><trkpt lat="42.721792358162205" lon="-1.044024397481518"><ele>917.0</ele><time>2026-03-31T13:06:52Z</time></trkpt><trkpt lat="42.72185252221809" lon="-1.0442174045624482"><ele>917.0</ele><time>2026-03-31T13:06:53Z</time></trkpt><trkpt lat="42.72192282928073" lon="-1.0444223413626728"><ele>917.6666666666667</ele><time>2026-03-31T13:06:54Z</time></trkpt><trkpt lat="42.72201086659672" lon="-1.044620902283857"><ele>918.3333333333333</ele><time>2026-03-31T13:06:55Z</time></trkpt><trkpt lat="42.72207326639285" lon="-1.0448362185249889"><ele>919.0</ele><time>2026-03-31T13:06:56Z</time></trkpt><trkpt lat="42.72215096469435" lon="-1.0450231548404996"><ele>919.0</ele><time>2026-03-31T13:06:57Z</time></trkpt><trkpt lat="42.722253357273445" lon="-1.0451710853945846"><ele>919.0</ele><time>2026-03-31T13:06:58Z</time></trkpt><trkpt lat="42.72235035775126" lon="-1.0453200841794053"><ele>919.0</ele><time>2026-03-31T13:06:59Z</time></trkpt><trkpt lat="42.722460218292" lon="-1.0454516945762327"><ele>919.0</ele><time>2026-03-31T13:07:00Z</time></trkpt><trkpt lat="42.72256724448799" lon="-1.0455181532364415"><ele>919.0</ele><time>2026-03-31T13:07:01Z</time></trkpt><trkpt lat="42.722680111885204" lon="-1.045525185801377"><ele>919.0</ele><time>2026-03-31T13:07:02Z</time></trkpt><trkpt lat="42.72277623008822" lon="-1.0454641636447275"><ele>919.0</ele><time>2026-03-31T13:07:03Z</time></trkpt><trkpt lat="42.72288883268344" lon="-1.0453806703857782"><ele>919.0</ele><time>2026-03-31T13:07:04Z</time></trkpt><trkpt lat="42.723023143985515" lon="-1.0453084101465302"><ele>917.75</ele><time>2026-03-31T13:07:05Z</time></trkpt><trkpt lat="42.723148737286294" lon="-1.0452006889615137"><ele>916.5</ele><time>2026-03-31T13:07:06Z</time></trkpt><trkpt lat="42.72327663624721" lon="-1.0450954710961966"><ele>915.25</ele><time>2026-03-31T13:07:07Z</time></trkpt><trkpt lat="42.72339609472672" lon="-1.0449768252962228"><ele>914.0</ele><time>2026-03-31T13:07:08Z</time></trkpt><trkpt lat="42.72349396855197" lon="-1.044836732166244"><ele>910.8000000000001</ele><time>2026-03-31T13:07:09Z</time></trkpt><trkpt lat="42.72357978806539" lon="-1.0447379599678697"><ele>907.6000000000001</ele><time>2026-03-31T13:07:10Z</time></trkpt><trkpt lat="42.72368186351748" lon="-1.044712300071743"><ele>904.4</ele><time>2026-03-31T13:07:11Z</time></trkpt><trkpt lat="42.723779860682626" lon="-1.0447721666253924"><ele>901.2</ele><time>2026-03-31T13:07:12Z</time></trkpt><trkpt lat="42.72385410065221" lon="-1.044896216138299"><ele>898.0</ele><time>2026-03-31T13:07:13Z</time></trkpt><trkpt lat="42.72390483301107" lon="-1.0450635432792796"><ele>898.0</ele><time>2026-03-31T13:07:14Z</time></trkpt><trkpt lat="42.72395048362258" lon="-1.0452428520450736"><ele>898.0</ele><time>2026-03-31T13:07:15Z</time></trkpt><trkpt lat="42.724042945836814" lon="-1.0453537081895299"><ele>898.0</ele><time>2026-03-31T13:07:16Z</time></trkpt><trkpt lat="42.72417112053313" lon="-1.0453988433206003"><ele>898.0</ele><time>2026-03-31T13:07:17Z</time></trkpt><trkpt lat="42.72430496812476" lon="-1.045452270078084"><ele>897.25</ele><time>2026-03-31T13:07:18Z</time></trkpt><trkpt lat="42.724439153756194" lon="-1.0454785972619887"><ele>896.5</ele><time>2026-03-31T13:07:19Z</time></trkpt><trkpt lat="42.72457302738194" lon="-1.0454514034568072"><ele>895.75</ele><time>2026-03-31T13:07:20Z</time></trkpt><trkpt lat="42.72470907780586" lon="-1.0453849355296942"><ele>895.0</ele><time>2026-03-31T13:07:21Z</time></trkpt><trkpt lat="42.72485192094418" lon="-1.0453820973518324"><ele>895.0</ele><time>2026-03-31T13:07:22Z</time></trkpt><trkpt lat="42.72497775737044" lon="-1.0454118178359968"><ele>895.0</ele><time>2026-03-31T13:07:23Z</time></trkpt><trkpt lat="42.72509565663386" lon="-1.0454427330209268"><ele>895.0</ele><time>2026-03-31T13:07:24Z</time></trkpt><trkpt lat="42.725198022037496" lon="-1.045383841216614"><ele>895.0</ele><time>2026-03-31T13:07:25Z</time></trkpt><trkpt lat="42.72527210855584" lon="-1.0452578713308478"><ele>893.75</ele><time>2026-03-31T13:07:26Z</time></trkpt><trkpt lat="42.72529446789856" lon="-1.0450888160627851"><ele>892.5</ele><time>2026-03-31T13:07:27Z</time></trkpt><trkpt lat="42.72527972453028" lon="-1.0449165067333852"><ele>891.25</ele><time>2026-03-31T13:07:28Z</time></trkpt><trkpt lat="42.72522479755676" lon="-1.0447494113808484"><ele>890.0</ele><time>2026-03-31T13:07:29Z</time></trkpt><trkpt lat="42.72514296967466" lon="-1.044589846295602"><ele>890.0</ele><time>2026-03-31T13:07:30Z</time></trkpt><trkpt lat="42.725057973487665" lon="-1.0444299875902026"><ele>890.0</ele><time>2026-03-31T13:07:31Z</time></trkpt><trkpt lat="42.724986893849994" lon="-1.0442735551929907"><ele>890.0</ele><time>2026-03-31T13:07:32Z</time></trkpt><trkpt lat="42.72495018493139" lon="-1.0441135128640344"><ele>890.0</ele><time>2026-03-31T13:07:33Z</time></trkpt><trkpt lat="42.72496042300281" lon="-1.0439389670352408"><ele>889.75</ele><time>2026-03-31T13:07:34Z</time></trkpt><trkpt lat="42.725007618703515" lon="-1.0437479070465032"><ele>889.5</ele><time>2026-03-31T13:07:35Z</time></trkpt><trkpt lat="42.72503068731319" lon="-1.0435543376579495"><ele>889.25</ele><time>2026-03-31T13:07:36Z</time></trkpt><trkpt lat="42.72496123441641" lon="-1.0433817564325722"><ele>889.0</ele><time>2026-03-31T13:07:37Z</time></trkpt><trkpt lat="42.724903175196964" lon="-1.043178065667376"><ele>888.0</ele><time>2026-03-31T13:07:38Z</time></trkpt><trkpt lat="42.72481240950471" lon="-1.0429806906638792"><ele>887.0</ele><time>2026-03-31T13:07:39Z</time></trkpt><trkpt lat="42.724742600321605" lon="-1.042753202223845"><ele>886.0</ele><time>2026-03-31T13:07:40Z</time></trkpt><trkpt lat="42.724710971609845" lon="-1.04252909459285"><ele>882.6666666666666</ele><time>2026-03-31T13:07:41Z</time></trkpt><trkpt lat="42.72470022176357" lon="-1.0423145707501387"><ele>879.3333333333333</ele><time>2026-03-31T13:07:42Z</time></trkpt><trkpt lat="42.72468506157547" lon="-1.0421111812589707"><ele>876.0</ele><time>2026-03-31T13:07:43Z</time></trkpt><trkpt lat="42.724644792155814" lon="-1.0419205511487442"><ele>876.0</ele><time>2026-03-31T13:07:44Z</time></trkpt><trkpt lat="42.72457617020361" lon="-1.0417477417125145"><ele>876.0</ele><time>2026-03-31T13:07:45Z</time></trkpt><trkpt lat="42.724504198782704" lon="-1.0415966162470343"><ele>876.0</ele><time>2026-03-31T13:07:46Z</time></trkpt><trkpt lat="42.72445926095091" lon="-1.041472051095286"><ele>876.0</ele><time>2026-03-31T13:07:47Z</time></trkpt><trkpt lat="42.72445663193791" lon="-1.0413583109340092"><ele>874.5999999999999</ele><time>2026-03-31T13:07:48Z</time></trkpt><trkpt lat="42.72450660387863" lon="-1.0412572889964729"><ele>873.1999999999999</ele><time>2026-03-31T13:07:49Z</time></trkpt><trkpt lat="42.72459693682256" lon="-1.0412042830968904"><ele>871.8000000000001</ele><time>2026-03-31T13:07:50Z</time></trkpt><trkpt lat="42.724700401176676" lon="-1.041222870355234"><ele>870.4000000000001</ele><time>2026-03-31T13:07:51Z</time></trkpt><trkpt lat="42.72479590300953" lon="-1.041317731690285"><ele>869.0</ele><time>2026-03-31T13:07:52Z</time></trkpt><trkpt lat="42.7248734550345" lon="-1.041465279220425"><ele>869.0</ele><time>2026-03-31T13:07:53Z</time></trkpt><trkpt lat="42.72496762507144" lon="-1.0416316976303657"><ele>869.0</ele><time>2026-03-31T13:07:54Z</time></trkpt><trkpt lat="42.72509027916475" lon="-1.041801958775572"><ele>869.0</ele><time>2026-03-31T13:07:55Z</time></trkpt><trkpt lat="42.72523370223868" lon="-1.0419434471129898"><ele>870.3333333333334</ele><time>2026-03-31T13:07:56Z</time></trkpt><trkpt lat="42.725377026792756" lon="-1.0421199626821889"><ele>871.6666666666667</ele><time>2026-03-31T13:07:57Z</time></trkpt><trkpt lat="42.72550292614234" lon="-1.0423044411809503"><ele>873.0</ele><time>2026-03-31T13:07:58Z</time></trkpt><trkpt lat="42.72564277537278" lon="-1.042484129241174"><ele>873.0</ele><time>2026-03-31T13:07:59Z</time></trkpt><trkpt lat="42.72566254763153" lon="-1.0426181957875047"><ele>873.0</ele><time>2026-03-31T13:08:00Z</time></trkpt><trkpt lat="42.72571815245747" lon="-1.0428039334609052"><ele>873.0</ele><time>2026-03-31T13:08:01Z</time></trkpt><trkpt lat="42.72576261384482" lon="-1.042962476833242"><ele>873.0</ele><time>2026-03-31T13:08:02Z</time></trkpt><trkpt lat="42.72584359461059" lon="-1.0430523435950312"><ele>873.0</ele><time>2026-03-31T13:08:03Z</time></trkpt><trkpt lat="42.725939186601124" lon="-1.0430848024088282"><ele>873.0</ele><time>2026-03-31T13:08:04Z</time></trkpt><trkpt lat="42.72603909158926" lon="-1.0430842149477741"><ele>873.0</ele><time>2026-03-31T13:08:05Z</time></trkpt><trkpt lat="42.72612964011431" lon="-1.0430042665099788"><ele>873.0</ele><time>2026-03-31T13:08:06Z</time></trkpt><trkpt lat="42.726207167727225" lon="-1.042870078434813"><ele>873.0</ele><time>2026-03-31T13:08:07Z</time></trkpt><trkpt lat="42.72628847985891" lon="-1.042711808871702"><ele>871.0</ele><time>2026-03-31T13:08:08Z</time></trkpt><trkpt lat="42.72638237422075" lon="-1.0425558736510359"><ele>869.0</ele><time>2026-03-31T13:08:09Z</time></trkpt><trkpt lat="42.72648728833956" lon="-1.0424096463027774"><ele>867.0</ele><time>2026-03-31T13:08:10Z</time></trkpt><trkpt lat="42.726626496211864" lon="-1.0423242220461881"><ele>861.3333333333333</ele><time>2026-03-31T13:08:11Z</time></trkpt><trkpt lat="42.72678927539458" lon="-1.042274156937501"><ele>855.6666666666666</ele><time>2026-03-31T13:08:12Z</time></trkpt><trkpt lat="42.726959536806156" lon="-1.0422278153982483"><ele>850.0</ele><time>2026-03-31T13:08:13Z</time></trkpt><trkpt lat="42.72712744439252" lon="-1.0421815219825283"><ele>850.0</ele><time>2026-03-31T13:08:14Z</time></trkpt><trkpt lat="42.72729826883865" lon="-1.042166590367344"><ele>850.0</ele><time>2026-03-31T13:08:15Z</time></trkpt><trkpt lat="42.7274753109368" lon="-1.0422137457307774"><ele>850.0</ele><time>2026-03-31T13:08:16Z</time></trkpt><trkpt lat="42.72764529855095" lon="-1.042309757722966"><ele>848.0</ele><time>2026-03-31T13:08:17Z</time></trkpt><trkpt lat="42.727801056755006" lon="-1.0424533960051932"><ele>846.0</ele><time>2026-03-31T13:08:18Z</time></trkpt><trkpt lat="42.72793377008123" lon="-1.0426379372281007"><ele>844.0</ele><time>2026-03-31T13:08:19Z</time></trkpt><trkpt lat="42.728038842164054" lon="-1.042857709398495"><ele>844.0</ele><time>2026-03-31T13:08:20Z</time></trkpt><trkpt lat="42.72814747058293" lon="-1.0430641023057998"><ele>844.0</ele><time>2026-03-31T13:08:21Z</time></trkpt><trkpt lat="42.72830364620702" lon="-1.0431668912447365"><ele>844.0</ele><time>2026-03-31T13:08:22Z</time></trkpt><trkpt lat="42.72847086191111" lon="-1.0432682279788859"><ele>848.0</ele><time>2026-03-31T13:08:23Z</time></trkpt><trkpt lat="42.7286385392454" lon="-1.0433731568806621"><ele>852.0</ele><time>2026-03-31T13:08:24Z</time></trkpt><trkpt lat="42.72878382208858" lon="-1.043463858783056"><ele>856.0</ele><time>2026-03-31T13:08:25Z</time></trkpt><trkpt lat="42.728908181355926" lon="-1.0435102753219327"><ele>856.0</ele><time>2026-03-31T13:08:26Z</time></trkpt><trkpt lat="42.72902278401594" lon="-1.0435068060739219"><ele>856.0</ele><time>2026-03-31T13:08:27Z</time></trkpt><trkpt lat="42.729115134531845" lon="-1.043409560280492"><ele>856.0</ele><time>2026-03-31T13:08:28Z</time></trkpt><trkpt lat="42.729166675723064" lon="-1.043249916579449"><ele>856.0</ele><time>2026-03-31T13:08:29Z</time></trkpt><trkpt lat="42.729200880956995" lon="-1.0430646388656828"><ele>853.3333333333333</ele><time>2026-03-31T13:08:30Z</time></trkpt><trkpt lat="42.729249937533105" lon="-1.0428626326960555"><ele>850.6666666666667</ele><time>2026-03-31T13:08:31Z</time></trkpt><trkpt lat="42.72932558979357" lon="-1.042671713726914"><ele>848.0</ele><time>2026-03-31T13:08:32Z</time></trkpt><trkpt lat="42.72942827949362" lon="-1.0424927853562311"><ele>842.6666666666667</ele><time>2026-03-31T13:08:33Z</time></trkpt><trkpt lat="42.72954123288431" lon="-1.0423078908617363"><ele>837.3333333333333</ele><time>2026-03-31T13:08:34Z</time></trkpt><trkpt lat="42.72964628696568" lon="-1.0421089838470428"><ele>832.0</ele><time>2026-03-31T13:08:35Z</time></trkpt><trkpt lat="42.729731127895406" lon="-1.0419117411959562"><ele>832.0</ele><time>2026-03-31T13:08:36Z</time></trkpt><trkpt lat="42.72979893773366" lon="-1.041735926793648"><ele>832.0</ele><time>2026-03-31T13:08:37Z</time></trkpt><trkpt lat="42.72985830516927" lon="-1.0415993011405993"><ele>832.0</ele><time>2026-03-31T13:08:38Z</time></trkpt><trkpt lat="42.72993238262461" lon="-1.0415229810311122"><ele>832.0</ele><time>2026-03-31T13:08:39Z</time></trkpt><trkpt lat="42.730031960976866" lon="-1.0415047691076726"><ele>832.0</ele><time>2026-03-31T13:08:40Z</time></trkpt><trkpt lat="42.730129990251775" lon="-1.0415602274137765"><ele>832.0</ele><time>2026-03-31T13:08:41Z</time></trkpt><trkpt lat="42.73020469086865" lon="-1.0416725281146952"><ele>832.0</ele><time>2026-03-31T13:08:42Z</time></trkpt><trkpt lat="42.73025548526214" lon="-1.0418299986956951"><ele>832.0</ele><time>2026-03-31T13:08:43Z</time></trkpt><trkpt lat="42.73031062443903" lon="-1.0420194052444376"><ele>829.0</ele><time>2026-03-31T13:08:44Z</time></trkpt><trkpt lat="42.730414609146436" lon="-1.0422044126305199"><ele>826.0</ele><time>2026-03-31T13:08:45Z</time></trkpt><trkpt lat="42.73053144952136" lon="-1.0423848631552952"><ele>823.0</ele><time>2026-03-31T13:08:46Z</time></trkpt><trkpt lat="42.73065330453602" lon="-1.0425541483456622"><ele>823.0</ele><time>2026-03-31T13:08:47Z</time></trkpt><trkpt lat="42.73076920877853" lon="-1.042714511009541"><ele>823.0</ele><time>2026-03-31T13:08:48Z</time></trkpt><trkpt lat="42.73086470506535" lon="-1.0428800856727176"><ele>823.0</ele><time>2026-03-31T13:08:49Z</time></trkpt><trkpt lat="42.73095904936356" lon="-1.0430047811519219"><ele>823.0</ele><time>2026-03-31T13:08:50Z</time></trkpt><trkpt lat="42.73105282331633" lon="-1.043093554031627"><ele>823.0</ele><time>2026-03-31T13:08:51Z</time></trkpt><trkpt lat="42.73116434753847" lon="-1.0430995750357166"><ele>823.0</ele><time>2026-03-31T13:08:52Z</time></trkpt><trkpt lat="42.73127058681566" lon="-1.0430837998167861"><ele>823.0</ele><time>2026-03-31T13:08:53Z</time></trkpt><trkpt lat="42.73135674474778" lon="-1.0429854268499636"><ele>823.0</ele><time>2026-03-31T13:08:54Z</time></trkpt><trkpt lat="42.7314146181303" lon="-1.042844416625216"><ele>822.0</ele><time>2026-03-31T13:08:55Z</time></trkpt><trkpt lat="42.731442899331924" lon="-1.042668744826683"><ele>821.0</ele><time>2026-03-31T13:08:56Z</time></trkpt><trkpt lat="42.73144507093141" lon="-1.0424570068373664"><ele>820.0</ele><time>2026-03-31T13:08:57Z</time></trkpt><trkpt lat="42.73144128341766" lon="-1.0422161383264807"><ele>820.0</ele><time>2026-03-31T13:08:58Z</time></trkpt><trkpt lat="42.731456676626664" lon="-1.0419747738922889"><ele>820.0</ele><time>2026-03-31T13:08:59Z</time></trkpt><trkpt lat="42.73148540480438" lon="-1.0417515408596305"><ele>820.0</ele><time>2026-03-31T13:09:00Z</time></trkpt><trkpt lat="42.73153361669196" lon="-1.041539389437535"><ele>815.6666666666666</ele><time>2026-03-31T13:09:01Z</time></trkpt><trkpt lat="42.73159785310436" lon="-1.041328157927217"><ele>811.3333333333333</ele><time>2026-03-31T13:09:02Z</time></trkpt><trkpt lat="42.731651397646765" lon="-1.0411226869426389"><ele>807.0</ele><time>2026-03-31T13:09:03Z</time></trkpt><trkpt lat="42.73167370537139" lon="-1.0409153000618896"><ele>805.8</ele><time>2026-03-31T13:09:04Z</time></trkpt><trkpt lat="42.73167581560496" lon="-1.0407362072324833"><ele>804.6</ele><time>2026-03-31T13:09:05Z</time></trkpt><trkpt lat="42.731689743541104" lon="-1.0406021143526758"><ele>803.4</ele><time>2026-03-31T13:09:06Z</time></trkpt><trkpt lat="42.73175073455179" lon="-1.0405206000316758"><ele>802.1999999999999</ele><time>2026-03-31T13:09:07Z</time></trkpt><trkpt lat="42.73185319422136" lon="-1.040511957313474"><ele>801.0</ele><time>2026-03-31T13:09:08Z</time></trkpt><trkpt lat="42.73195006098116" lon="-1.040576809512818"><ele>801.0</ele><time>2026-03-31T13:09:09Z</time></trkpt><trkpt lat="42.73202902377191" lon="-1.040706950226428"><ele>801.0</ele><time>2026-03-31T13:09:10Z</time></trkpt><trkpt lat="42.73211916199354" lon="-1.0408638281725289"><ele>801.0</ele><time>2026-03-31T13:09:11Z</time></trkpt><trkpt lat="42.732238731585255" lon="-1.0409757583408374"><ele>801.0</ele><time>2026-03-31T13:09:12Z</time></trkpt><trkpt lat="42.732325234735654" lon="-1.0410414681703777"><ele>801.0</ele><time>2026-03-31T13:09:13Z</time></trkpt><trkpt lat="42.73239380003314" lon="-1.0410471735325555"><ele>801.0</ele><time>2026-03-31T13:09:14Z</time></trkpt><trkpt lat="42.73247221966444" lon="-1.0409556880551893"><ele>801.0</ele><time>2026-03-31T13:09:15Z</time></trkpt><trkpt lat="42.73249817272351" lon="-1.0407998102493574"><ele>801.0</ele><time>2026-03-31T13:09:16Z</time></trkpt><trkpt lat="42.73248816962546" lon="-1.0406307932139105"><ele>801.0</ele><time>2026-03-31T13:09:17Z</time></trkpt><trkpt lat="42.73246507209748" lon="-1.0404281714224208"><ele>801.0</ele><time>2026-03-31T13:09:18Z</time></trkpt><trkpt lat="42.73246682128804" lon="-1.0401918395236132"><ele>801.0</ele><time>2026-03-31T13:09:19Z</time></trkpt><trkpt lat="42.73250675133789" lon="-1.0399520834864966"><ele>801.0</ele><time>2026-03-31T13:09:20Z</time></trkpt><trkpt lat="42.732579066251006" lon="-1.0397220962273015"><ele>798.6666666666667</ele><time>2026-03-31T13:09:21Z</time></trkpt><trkpt lat="42.73266252779479" lon="-1.0394873050368711"><ele>796.3333333333334</ele><time>2026-03-31T13:09:22Z</time></trkpt><trkpt lat="42.73274379224877" lon="-1.039264361723097"><ele>794.0</ele><time>2026-03-31T13:09:23Z</time></trkpt><trkpt lat="42.73281241576411" lon="-1.039050895438936"><ele>794.0</ele><time>2026-03-31T13:09:24Z</time></trkpt><trkpt lat="42.732884066656965" lon="-1.0388637889239043"><ele>794.0</ele><time>2026-03-31T13:09:25Z</time></trkpt><trkpt lat="42.732992307829214" lon="-1.0387238194628052"><ele>794.0</ele><time>2026-03-31T13:09:26Z</time></trkpt><trkpt lat="42.733131477885536" lon="-1.0386509625481144"><ele>794.0</ele><time>2026-03-31T13:09:27Z</time></trkpt><trkpt lat="42.733269901797165" lon="-1.0386231242266253"><ele>794.0</ele><time>2026-03-31T13:09:28Z</time></trkpt><trkpt lat="42.73338282925251" lon="-1.0385680853472135"><ele>794.0</ele><time>2026-03-31T13:09:29Z</time></trkpt><trkpt lat="42.73344724075403" lon="-1.0384277133529194"><ele>794.0</ele><time>2026-03-31T13:09:30Z</time></trkpt><trkpt lat="42.73345331047623" lon="-1.0382602444104836"><ele>792.5</ele><time>2026-03-31T13:09:31Z</time></trkpt><trkpt lat="42.73341444067075" lon="-1.0380967079201722"><ele>791.0</ele><time>2026-03-31T13:09:32Z</time></trkpt><trkpt lat="42.73334074035091" lon="-1.0379466022886974"><ele>789.5</ele><time>2026-03-31T13:09:33Z</time></trkpt><trkpt lat="42.73325443214403" lon="-1.0377855087251773"><ele>788.0</ele><time>2026-03-31T13:09:34Z</time></trkpt><trkpt lat="42.733204220359625" lon="-1.037596316216435"><ele>784.0</ele><time>2026-03-31T13:09:35Z</time></trkpt><trkpt lat="42.73319586557888" lon="-1.0373786372656033"><ele>780.0</ele><time>2026-03-31T13:09:36Z</time></trkpt><trkpt lat="42.73323442921464" lon="-1.0371520257934133"><ele>776.0</ele><time>2026-03-31T13:09:37Z</time></trkpt><trkpt lat="42.73331411597442" lon="-1.0369383152102798"><ele>776.0</ele><time>2026-03-31T13:09:38Z</time></trkpt><trkpt lat="42.73341684314254" lon="-1.0367283521663984"><ele>776.0</ele><time>2026-03-31T13:09:39Z</time></trkpt><trkpt lat="42.73349907470025" lon="-1.0365209053595954"><ele>776.0</ele><time>2026-03-31T13:09:40Z</time></trkpt><trkpt lat="42.73355713389623" lon="-1.036337421701006"><ele>775.75</ele><time>2026-03-31T13:09:41Z</time></trkpt><trkpt lat="42.73358378140411" lon="-1.0361534187439325"><ele>775.5</ele><time>2026-03-31T13:09:42Z</time></trkpt><trkpt lat="42.73360211605216" lon="-1.0359619303008896"><ele>775.25</ele><time>2026-03-31T13:09:43Z</time></trkpt><trkpt lat="42.73361445546779" lon="-1.0358131921146785"><ele>775.0</ele><time>2026-03-31T13:09:44Z</time></trkpt><trkpt lat="42.7336584333288" lon="-1.0357064909939924"><ele>768.75</ele><time>2026-03-31T13:09:45Z</time></trkpt><trkpt lat="42.733742403789414" lon="-1.0356214321271837"><ele>762.5</ele><time>2026-03-31T13:09:46Z</time></trkpt><trkpt lat="42.73386275264495" lon="-1.0356026983817008"><ele>756.25</ele><time>2026-03-31T13:09:47Z</time></trkpt><trkpt lat="42.73398329210844" lon="-1.0356549843022824"><ele>750.0</ele><time>2026-03-31T13:09:48Z</time></trkpt><trkpt lat="42.734102816234234" lon="-1.035743146767843"><ele>753.0</ele><time>2026-03-31T13:09:49Z</time></trkpt><trkpt lat="42.7342521209437" lon="-1.0358344235128132"><ele>756.0</ele><time>2026-03-31T13:09:50Z</time></trkpt><trkpt lat="42.73440512919818" lon="-1.0359065160999974"><ele>759.0</ele><time>2026-03-31T13:09:51Z</time></trkpt><trkpt lat="42.734528082127" lon="-1.0359546905192483"><ele>759.0</ele><time>2026-03-31T13:09:52Z</time></trkpt><trkpt lat="42.73463000180868" lon="-1.0359993379899444"><ele>759.0</ele><time>2026-03-31T13:09:53Z</time></trkpt><trkpt lat="42.734746130012475" lon="-1.0360738733477284"><ele>759.0</ele><time>2026-03-31T13:09:54Z</time></trkpt><trkpt lat="42.73487006912086" lon="-1.036205542212447"><ele>759.0</ele><time>2026-03-31T13:09:55Z</time></trkpt><trkpt lat="42.73498682307837" lon="-1.0363651111426602"><ele>759.0</ele><time>2026-03-31T13:09:56Z</time></trkpt><trkpt lat="42.735115376082774" lon="-1.0365128300103645"><ele>759.0</ele><time>2026-03-31T13:09:57Z</time></trkpt><trkpt lat="42.73527752987803" lon="-1.0365860744089699"><ele>759.0</ele><time>2026-03-31T13:09:58Z</time></trkpt><trkpt lat="42.73545079683769" lon="-1.0366087037190004"><ele>760.3333333333334</ele><time>2026-03-31T13:09:59Z</time></trkpt><trkpt lat="42.7356060894233" lon="-1.0366967335760744"><ele>761.6666666666667</ele><time>2026-03-31T13:10:00Z</time></trkpt><trkpt lat="42.73574758587292" lon="-1.0367806856151285"><ele>763.0</ele><time>2026-03-31T13:10:01Z</time></trkpt><trkpt lat="42.73586803391037" lon="-1.0369318578099467"><ele>763.0</ele><time>2026-03-31T13:10:02Z</time></trkpt><trkpt lat="42.73598813921848" lon="-1.0371027019795345"><ele>763.0</ele><time>2026-03-31T13:10:03Z</time></trkpt><trkpt lat="42.736106793626874" lon="-1.0372616709790545"><ele>763.0</ele><time>2026-03-31T13:10:04Z</time></trkpt><trkpt lat="42.7362148184659" lon="-1.037414627433443"><ele>764.0</ele><time>2026-03-31T13:10:05Z</time></trkpt><trkpt lat="42.73628988926932" lon="-1.0375779758875083"><ele>765.0</ele><time>2026-03-31T13:10:06Z</time></trkpt><trkpt lat="42.73633070018817" lon="-1.037745528997434"><ele>766.0</ele><time>2026-03-31T13:10:07Z</time></trkpt><trkpt lat="42.73635355120936" lon="-1.037903057400067"><ele>767.0</ele><time>2026-03-31T13:10:08Z</time></trkpt><trkpt lat="42.73639705583404" lon="-1.0380245365762388"><ele>767.0</ele><time>2026-03-31T13:10:09Z</time></trkpt><trkpt lat="42.73649822123689" lon="-1.038035158943308"><ele>767.0</ele><time>2026-03-31T13:10:10Z</time></trkpt><trkpt lat="42.736572689008206" lon="-1.0380340214887225"><ele>767.0</ele><time>2026-03-31T13:10:11Z</time></trkpt><trkpt lat="42.73664370936112" lon="-1.0379339623531607"><ele>767.0</ele><time>2026-03-31T13:10:12Z</time></trkpt><trkpt lat="42.73667126673216" lon="-1.0377943162071737"><ele>767.0</ele><time>2026-03-31T13:10:13Z</time></trkpt><trkpt lat="42.73665220291235" lon="-1.037635769712569"><ele>770.3333333333333</ele><time>2026-03-31T13:10:14Z</time></trkpt><trkpt lat="42.7365914399913" lon="-1.0374622175751473"><ele>773.6666666666666</ele><time>2026-03-31T13:10:15Z</time></trkpt><trkpt lat="42.73650311571934" lon="-1.0372495619051247"><ele>777.0</ele><time>2026-03-31T13:10:16Z</time></trkpt><trkpt lat="42.73640406701527" lon="-1.0369995056223955"><ele>777.0</ele><time>2026-03-31T13:10:17Z</time></trkpt><trkpt lat="42.73630804520671" lon="-1.0367636592341505"><ele>777.0</ele><time>2026-03-31T13:10:18Z</time></trkpt><trkpt lat="42.73620524618564" lon="-1.0365554946266426"><ele>777.0</ele><time>2026-03-31T13:10:19Z</time></trkpt><trkpt lat="42.73608171021349" lon="-1.036345506799393"><ele>766.5</ele><time>2026-03-31T13:10:20Z</time></trkpt><trkpt lat="42.735929657496534" lon="-1.0361246048216926"><ele>756.0</ele><time>2026-03-31T13:10:21Z</time></trkpt><trkpt lat="42.735742558110495" lon="-1.0358845837901445"><ele>765.5</ele><time>2026-03-31T13:10:22Z</time></trkpt><trkpt lat="42.7355468624998" lon="-1.0356574427247656"><ele>775.0</ele><time>2026-03-31T13:10:23Z</time></trkpt><trkpt lat="42.735359868470155" lon="-1.0354494269176358"><ele>762.5</ele><time>2026-03-31T13:10:24Z</time></trkpt><trkpt lat="42.73517809370985" lon="-1.0352365450852585"><ele>750.0</ele><time>2026-03-31T13:10:25Z</time></trkpt><trkpt lat="42.73499044115562" lon="-1.035025638445461"><ele>758.5</ele><time>2026-03-31T13:10:26Z</time></trkpt><trkpt lat="42.73479757688931" lon="-1.034815492931411"><ele>767.0</ele><time>2026-03-31T13:10:27Z</time></trkpt><trkpt lat="42.73457096640204" lon="-1.0346713682225837"><ele>756.0</ele><time>2026-03-31T13:10:28Z</time></trkpt><trkpt lat="42.73435273304048" lon="-1.0345125936035577"><ele>745.0</ele><time>2026-03-31T13:10:29Z</time></trkpt><trkpt lat="42.734139283221076" lon="-1.0343344990129777"><ele>745.0</ele><time>2026-03-31T13:10:30Z</time></trkpt><trkpt lat="42.733929623076314" lon="-1.0341543539907834"><ele>745.0</ele><time>2026-03-31T13:10:31Z</time></trkpt><trkpt lat="42.73371952206517" lon="-1.0339762337407872"><ele>742.5</ele><time>2026-03-31T13:10:32Z</time></trkpt><trkpt lat="42.73351849931288" lon="-1.0337987946868394"><ele>740.0</ele><time>2026-03-31T13:10:33Z</time></trkpt><trkpt lat="42.73333591795942" lon="-1.0336148023859972"><ele>740.0</ele><time>2026-03-31T13:10:34Z</time></trkpt><trkpt lat="42.73316565141459" lon="-1.0334201824546903"><ele>740.0</ele><time>2026-03-31T13:10:35Z</time></trkpt><trkpt lat="42.733010606229236" lon="-1.0332310504676867"><ele>740.0</ele><time>2026-03-31T13:10:36Z</time></trkpt><trkpt lat="42.732869925978385" lon="-1.0330448341092806"><ele>744.6666666666666</ele><time>2026-03-31T13:10:37Z</time></trkpt><trkpt lat="42.73274502940463" lon="-1.0328269547642048"><ele>749.3333333333334</ele><time>2026-03-31T13:10:38Z</time></trkpt><trkpt lat="42.732653800868036" lon="-1.032559876475356"><ele>754.0</ele><time>2026-03-31T13:10:39Z</time></trkpt><trkpt lat="42.732588752496966" lon="-1.032280472869155"><ele>743.6666666666667</ele><time>2026-03-31T13:10:40Z</time></trkpt><trkpt lat="42.73255350641019" lon="-1.0319883863644785"><ele>733.3333333333334</ele><time>2026-03-31T13:10:41Z</time></trkpt><trkpt lat="42.73252821904708" lon="-1.0316982063199334"><ele>723.0</ele><time>2026-03-31T13:10:42Z</time></trkpt><trkpt lat="42.73253344314233" lon="-1.0313869531597224"><ele>722.3333333333334</ele><time>2026-03-31T13:10:43Z</time></trkpt><trkpt lat="42.732580145981565" lon="-1.0310908843698086"><ele>721.6666666666667</ele><time>2026-03-31T13:10:44Z</time></trkpt><trkpt lat="42.73264942104111" lon="-1.030801476499654"><ele>721.0</ele><time>2026-03-31T13:10:45Z</time></trkpt><trkpt lat="42.73273545792448" lon="-1.0305119518066808"><ele>723.0</ele><time>2026-03-31T13:10:46Z</time></trkpt><trkpt lat="42.73282179166435" lon="-1.0302185238173507"><ele>725.0</ele><time>2026-03-31T13:10:47Z</time></trkpt><trkpt lat="42.73290951611082" lon="-1.029908902573985"><ele>725.0</ele><time>2026-03-31T13:10:48Z</time></trkpt><trkpt lat="42.7330017995846" lon="-1.0295845370365275"><ele>725.0</ele><time>2026-03-31T13:10:49Z</time></trkpt><trkpt lat="42.73308551360328" lon="-1.0292666717877816"><ele>722.0</ele><time>2026-03-31T13:10:50Z</time></trkpt><trkpt lat="42.73314491179975" lon="-1.0289634293505598"><ele>719.0</ele><time>2026-03-31T13:10:51Z</time></trkpt><trkpt lat="42.73316663152006" lon="-1.0286550647415416"><ele>719.0</ele><time>2026-03-31T13:10:52Z</time></trkpt><trkpt lat="42.73315229225653" lon="-1.0283456032110878"><ele>719.0</ele><time>2026-03-31T13:10:53Z</time></trkpt><trkpt lat="42.73310921780575" lon="-1.0280521990817115"><ele>719.0</ele><time>2026-03-31T13:10:54Z</time></trkpt><trkpt lat="42.733081888183605" lon="-1.0277589079611618"><ele>711.0</ele><time>2026-03-31T13:10:55Z</time></trkpt><trkpt lat="42.73310336159322" lon="-1.0274508497216224"><ele>703.0</ele><time>2026-03-31T13:10:56Z</time></trkpt><trkpt lat="42.73316949467244" lon="-1.0271328076833022"><ele>703.0</ele><time>2026-03-31T13:10:57Z</time></trkpt><trkpt lat="42.733256059806095" lon="-1.0268051397369324"><ele>703.0</ele><time>2026-03-31T13:10:58Z</time></trkpt><trkpt lat="42.73333963359424" lon="-1.0264691729752267"><ele>702.5</ele><time>2026-03-31T13:10:59Z</time></trkpt><trkpt lat="42.73339886249565" lon="-1.0261177575712443"><ele>702.0</ele><time>2026-03-31T13:11:00Z</time></trkpt><trkpt lat="42.73343903611086" lon="-1.025756086642951"><ele>701.5</ele><time>2026-03-31T13:11:01Z</time></trkpt><trkpt lat="42.73347809020542" lon="-1.0253934771539222"><ele>701.0</ele><time>2026-03-31T13:11:02Z</time></trkpt><trkpt lat="42.73352070017625" lon="-1.0250289827638106"><ele>708.5</ele><time>2026-03-31T13:11:03Z</time></trkpt><trkpt lat="42.733563452522915" lon="-1.0246645678771984"><ele>716.0</ele><time>2026-03-31T13:11:04Z</time></trkpt><trkpt lat="42.73361341467252" lon="-1.0243024216906327"><ele>712.5</ele><time>2026-03-31T13:11:05Z</time></trkpt><trkpt lat="42.73366361502214" lon="-1.023942355734715"><ele>709.0</ele><time>2026-03-31T13:11:06Z</time></trkpt><trkpt lat="42.733710923971124" lon="-1.0235832919309118"><ele>703.5</ele><time>2026-03-31T13:11:07Z</time></trkpt><trkpt lat="42.73375785126976" lon="-1.0232244716249908"><ele>698.0</ele><time>2026-03-31T13:11:08Z</time></trkpt><trkpt lat="42.73380025896075" lon="-1.0228776414441352"><ele>698.0</ele><time>2026-03-31T13:11:09Z</time></trkpt><trkpt lat="42.733840107317434" lon="-1.0225580807155328"><ele>698.0</ele><time>2026-03-31T13:11:10Z</time></trkpt><trkpt lat="42.73386978182527" lon="-1.0222551156888995"><ele>699.3333333333333</ele><time>2026-03-31T13:11:11Z</time></trkpt><trkpt lat="42.73387627942641" lon="-1.0219662975271704"><ele>700.6666666666666</ele><time>2026-03-31T13:11:12Z</time></trkpt><trkpt lat="42.73382603799439" lon="-1.0216897330578392"><ele>702.0</ele><time>2026-03-31T13:11:13Z</time></trkpt><trkpt lat="42.73375969669892" lon="-1.0214048662486925"><ele>702.5</ele><time>2026-03-31T13:11:14Z</time></trkpt><trkpt lat="42.73373520794238" lon="-1.0211024734585825"><ele>703.0</ele><time>2026-03-31T13:11:15Z</time></trkpt><trkpt lat="42.73375620486405" lon="-1.0207710568129953"><ele>703.0</ele><time>2026-03-31T13:11:16Z</time></trkpt><trkpt lat="42.73378362483999" lon="-1.0204350969073592"><ele>703.0</ele><time>2026-03-31T13:11:17Z</time></trkpt><trkpt lat="42.73378640333413" lon="-1.0201029122578535"><ele>699.0</ele><time>2026-03-31T13:11:18Z</time></trkpt><trkpt lat="42.73376117005498" lon="-1.0197705972527016"><ele>695.0</ele><time>2026-03-31T13:11:19Z</time></trkpt><trkpt lat="42.733723825949454" lon="-1.0194429805014986"><ele>696.0</ele><time>2026-03-31T13:11:20Z</time></trkpt><trkpt lat="42.733683975221425" lon="-1.0191122133578314"><ele>697.0</ele><time>2026-03-31T13:11:21Z</time></trkpt><trkpt lat="42.73365230520978" lon="-1.0187905315278574"><ele>697.0</ele><time>2026-03-31T13:11:22Z</time></trkpt><trkpt lat="42.73362315954373" lon="-1.018473566486221"><ele>697.0</ele><time>2026-03-31T13:11:23Z</time></trkpt><trkpt lat="42.733592566016235" lon="-1.0181642105407953"><ele>697.0</ele><time>2026-03-31T13:11:24Z</time></trkpt><trkpt lat="42.7335609257734" lon="-1.017856841979196"><ele>697.0</ele><time>2026-03-31T13:11:25Z</time></trkpt><trkpt lat="42.733528240455385" lon="-1.0175598862814712"><ele>697.0</ele><time>2026-03-31T13:11:26Z</time></trkpt><trkpt lat="42.73348916674902" lon="-1.0172618916020735"><ele>692.0</ele><time>2026-03-31T13:11:27Z</time></trkpt><trkpt lat="42.733437590187734" lon="-1.0169678980065444"><ele>687.0</ele><time>2026-03-31T13:11:28Z</time></trkpt><trkpt lat="42.733366554667974" lon="-1.0166781512570215"><ele>682.0</ele><time>2026-03-31T13:11:29Z</time></trkpt><trkpt lat="42.7332860414442" lon="-1.0163886135606495"><ele>682.0</ele><time>2026-03-31T13:11:30Z</time></trkpt><trkpt lat="42.733204187735694" lon="-1.0161096421649116"><ele>682.0</ele><time>2026-03-31T13:11:31Z</time></trkpt><trkpt lat="42.73312057152797" lon="-1.0158347507001642"><ele>682.0</ele><time>2026-03-31T13:11:32Z</time></trkpt><trkpt lat="42.73302154893982" lon="-1.0155640088121816"><ele>687.0</ele><time>2026-03-31T13:11:33Z</time></trkpt><trkpt lat="42.732897403427806" lon="-1.015308538190435"><ele>692.0</ele><time>2026-03-31T13:11:34Z</time></trkpt><trkpt lat="42.732746076959046" lon="-1.0150689147374017"><ele>682.0</ele><time>2026-03-31T13:11:35Z</time></trkpt><trkpt lat="42.73257463311257" lon="-1.0148512977704107"><ele>672.0</ele><time>2026-03-31T13:11:36Z</time></trkpt><trkpt lat="42.732390425620004" lon="-1.0146563440784486"><ele>672.0</ele><time>2026-03-31T13:11:37Z</time></trkpt><trkpt lat="42.73219171475132" lon="-1.0144817151702745"><ele>672.0</ele><time>2026-03-31T13:11:38Z</time></trkpt><trkpt lat="42.731995981454226" lon="-1.0143067720047265"><ele>671.5</ele><time>2026-03-31T13:11:39Z</time></trkpt><trkpt lat="42.73181260095879" lon="-1.0140987607106218"><ele>671.0</ele><time>2026-03-31T13:11:40Z</time></trkpt><trkpt lat="42.73164241309538" lon="-1.0138673276977688"><ele>671.0</ele><time>2026-03-31T13:11:41Z</time></trkpt><trkpt lat="42.7314790335679" lon="-1.0136345553251962"><ele>671.0</ele><time>2026-03-31T13:11:42Z</time></trkpt><trkpt lat="42.73131277185588" lon="-1.013400883743"><ele>668.0</ele><time>2026-03-31T13:11:43Z</time></trkpt><trkpt lat="42.73114886626505" lon="-1.0131741253785294"><ele>665.0</ele><time>2026-03-31T13:11:44Z</time></trkpt><trkpt lat="42.73098583154433" lon="-1.012957553978205"><ele>665.0</ele><time>2026-03-31T13:11:45Z</time></trkpt><trkpt lat="42.73082877122586" lon="-1.012746007102123"><ele>665.0</ele><time>2026-03-31T13:11:46Z</time></trkpt><trkpt lat="42.73068789410907" lon="-1.0125386398691043"><ele>665.0</ele><time>2026-03-31T13:11:47Z</time></trkpt><trkpt lat="42.73055050159729" lon="-1.0123166353459812"><ele>666.3333333333333</ele><time>2026-03-31T13:11:48Z</time></trkpt><trkpt lat="42.73043519827616" lon="-1.0120818923206827"><ele>667.6666666666666</ele><time>2026-03-31T13:11:49Z</time></trkpt><trkpt lat="42.730335958551215" lon="-1.0118317385870486"><ele>669.0</ele><time>2026-03-31T13:11:50Z</time></trkpt><trkpt lat="42.730222104883815" lon="-1.0115830123084486"><ele>669.3333333333334</ele><time>2026-03-31T13:11:51Z</time></trkpt><trkpt lat="42.73007310940027" lon="-1.0113599116445244"><ele>669.6666666666667</ele><time>2026-03-31T13:11:52Z</time></trkpt><trkpt lat="42.72989337339659" lon="-1.011173770171169"><ele>670.0</ele><time>2026-03-31T13:11:53Z</time></trkpt><trkpt lat="42.72969043959199" lon="-1.0110271427608635"><ele>670.0</ele><time>2026-03-31T13:11:54Z</time></trkpt><trkpt lat="42.72947215232533" lon="-1.0109329934888496"><ele>670.0</ele><time>2026-03-31T13:11:55Z</time></trkpt><trkpt lat="42.72924623307772" lon="-1.0109048693242826"><ele>666.0</ele><time>2026-03-31T13:11:56Z</time></trkpt><trkpt lat="42.72902400884544" lon="-1.0109335607741459"><ele>662.0</ele><time>2026-03-31T13:11:57Z</time></trkpt><trkpt lat="42.72879329031917" lon="-1.010978406206554"><ele>661.0</ele><time>2026-03-31T13:11:58Z</time></trkpt><trkpt lat="42.72854357963085" lon="-1.010994895557903"><ele>660.0</ele><time>2026-03-31T13:11:59Z</time></trkpt><trkpt lat="42.728269800646146" lon="-1.0109739513392502"><ele>660.0</ele><time>2026-03-31T13:12:00Z</time></trkpt><trkpt lat="42.72799906987844" lon="-1.0109303436222143"><ele>660.0</ele><time>2026-03-31T13:12:01Z</time></trkpt><trkpt lat="42.72773692757323" lon="-1.010884643342835"><ele>659.5</ele><time>2026-03-31T13:12:02Z</time></trkpt><trkpt lat="42.72748755805913" lon="-1.0108413153989195"><ele>659.0</ele><time>2026-03-31T13:12:03Z</time></trkpt><trkpt lat="42.72724809531055" lon="-1.0108021759760317"><ele>664.6666666666666</ele><time>2026-03-31T13:12:04Z</time></trkpt><trkpt lat="42.72702782323636" lon="-1.0107641203502722"><ele>670.3333333333334</ele><time>2026-03-31T13:12:05Z</time></trkpt><trkpt lat="42.72681655915375" lon="-1.0107280795553741"><ele>676.0</ele><time>2026-03-31T13:12:06Z</time></trkpt><trkpt lat="42.72660471863405" lon="-1.0106776575981422"><ele>676.0</ele><time>2026-03-31T13:12:07Z</time></trkpt><trkpt lat="42.72638976921493" lon="-1.010592917924139"><ele>676.0</ele><time>2026-03-31T13:12:08Z</time></trkpt><trkpt lat="42.72617178448028" lon="-1.0104704312902735"><ele>668.0</ele><time>2026-03-31T13:12:09Z</time></trkpt><trkpt lat="42.72595368595917" lon="-1.0103229561678198"><ele>660.0</ele><time>2026-03-31T13:12:10Z</time></trkpt><trkpt lat="42.72574188060904" lon="-1.010158735236797"><ele>672.5</ele><time>2026-03-31T13:12:11Z</time></trkpt><trkpt lat="42.725532383752984" lon="-1.0099852306014487"><ele>685.0</ele><time>2026-03-31T13:12:12Z</time></trkpt><trkpt lat="42.7253235668157" lon="-1.0098135532392487"><ele>676.0</ele><time>2026-03-31T13:12:13Z</time></trkpt><trkpt lat="42.725114303931605" lon="-1.0096503401914112"><ele>667.0</ele><time>2026-03-31T13:12:14Z</time></trkpt><trkpt lat="42.72490485724249" lon="-1.0094941768688024"><ele>667.0</ele><time>2026-03-31T13:12:15Z</time></trkpt><trkpt lat="42.72469587709566" lon="-1.0093422183507483"><ele>667.0</ele><time>2026-03-31T13:12:16Z</time></trkpt><trkpt lat="42.72449082385802" lon="-1.0092035897752394"><ele>671.0</ele><time>2026-03-31T13:12:17Z</time></trkpt><trkpt lat="42.72429634667349" lon="-1.0090684297914783"><ele>675.0</ele><time>2026-03-31T13:12:18Z</time></trkpt><trkpt lat="42.72411741703213" lon="-1.0089279195545457"><ele>679.0</ele><time>2026-03-31T13:12:19Z</time></trkpt><trkpt lat="42.723942263703584" lon="-1.0087660007464627"><ele>679.0</ele><time>2026-03-31T13:12:20Z</time></trkpt><trkpt lat="42.72375416873093" lon="-1.0086214294212401"><ele>679.0</ele><time>2026-03-31T13:12:21Z</time></trkpt><trkpt lat="42.72354610899018" lon="-1.008538987387185"><ele>679.0</ele><time>2026-03-31T13:12:22Z</time></trkpt><trkpt lat="42.723331617654054" lon="-1.0085125475952208"><ele>674.0</ele><time>2026-03-31T13:12:23Z</time></trkpt><trkpt lat="42.723116747408234" lon="-1.008478120538638"><ele>669.0</ele><time>2026-03-31T13:12:24Z</time></trkpt><trkpt lat="42.72291100632353" lon="-1.0084351120144799"><ele>664.0</ele><time>2026-03-31T13:12:25Z</time></trkpt><trkpt lat="42.72272488033129" lon="-1.008390261654216"><ele>662.0</ele><time>2026-03-31T13:12:26Z</time></trkpt><trkpt lat="42.722551873607436" lon="-1.008369089600874"><ele>660.0</ele><time>2026-03-31T13:12:27Z</time></trkpt><trkpt lat="42.72238263942432" lon="-1.0083596849697432"><ele>658.0</ele><time>2026-03-31T13:12:28Z</time></trkpt><trkpt lat="42.722209578227634" lon="-1.0083468327471035"><ele>662.6666666666667</ele><time>2026-03-31T13:12:29Z</time></trkpt><trkpt lat="42.722037391061605" lon="-1.008318580703201"><ele>667.3333333333334</ele><time>2026-03-31T13:12:30Z</time></trkpt><trkpt lat="42.72186344099623" lon="-1.0082578700925298"><ele>672.0</ele><time>2026-03-31T13:12:31Z</time></trkpt><trkpt lat="42.72168859810137" lon="-1.008161232625566"><ele>672.0</ele><time>2026-03-31T13:12:32Z</time></trkpt><trkpt lat="42.72150947913897" lon="-1.0080371427155081"><ele>672.0</ele><time>2026-03-31T13:12:33Z</time></trkpt><trkpt lat="42.72132982210427" lon="-1.007897782321839"><ele>672.0</ele><time>2026-03-31T13:12:34Z</time></trkpt><trkpt lat="42.721157726972" lon="-1.007741714955304"><ele>667.0</ele><time>2026-03-31T13:12:35Z</time></trkpt><trkpt lat="42.72099922813356" lon="-1.0075820072543078"><ele>662.0</ele><time>2026-03-31T13:12:36Z</time></trkpt><trkpt lat="42.72086572065114" lon="-1.0074355215582511"><ele>657.0</ele><time>2026-03-31T13:12:37Z</time></trkpt><trkpt lat="42.72075399212551" lon="-1.00729454517036"><ele>657.0</ele><time>2026-03-31T13:12:38Z</time></trkpt><trkpt lat="42.720668252155036" lon="-1.0071624552615224"><ele>657.0</ele><time>2026-03-31T13:12:39Z</time></trkpt><trkpt lat="42.720614061942754" lon="-1.007009960263299"><ele>657.0</ele><time>2026-03-31T13:12:40Z</time></trkpt><trkpt lat="42.72060413014546" lon="-1.0068387064474882"><ele>657.0</ele><time>2026-03-31T13:12:41Z</time></trkpt><trkpt lat="42.720618552100255" lon="-1.0066597477596873"><ele>654.75</ele><time>2026-03-31T13:12:42Z</time></trkpt><trkpt lat="42.72066285691084" lon="-1.0064956877023699"><ele>652.5</ele><time>2026-03-31T13:12:43Z</time></trkpt><trkpt lat="42.72074066426374" lon="-1.0063529706709196"><ele>650.25</ele><time>2026-03-31T13:12:44Z</time></trkpt><trkpt lat="42.720846562493946" lon="-1.0062392217558793"><ele>648.0</ele><time>2026-03-31T13:12:45Z</time></trkpt><trkpt lat="42.720975098528086" lon="-1.0061496438808468"><ele>647.3333333333334</ele><time>2026-03-31T13:12:46Z</time></trkpt><trkpt lat="42.721118407003004" lon="-1.0060470700128337"><ele>646.6666666666667</ele><time>2026-03-31T13:12:47Z</time></trkpt><trkpt lat="42.7212752201861" lon="-1.0058915660154961"><ele>646.0</ele><time>2026-03-31T13:12:48Z</time></trkpt><trkpt lat="42.72143458265392" lon="-1.0056963894039759"><ele>646.0</ele><time>2026-03-31T13:12:49Z</time></trkpt><trkpt lat="42.72157693536244" lon="-1.0055046486471733"><ele>646.0</ele><time>2026-03-31T13:12:50Z</time></trkpt><trkpt lat="42.721720475433706" lon="-1.0053102023806635"><ele>646.0</ele><time>2026-03-31T13:12:51Z</time></trkpt><trkpt lat="42.72186824053017" lon="-1.0051131751572426"><ele>645.3333333333334</ele><time>2026-03-31T13:12:52Z</time></trkpt><trkpt lat="42.722017012545635" lon="-1.0049121474785625"><ele>644.6666666666666</ele><time>2026-03-31T13:12:53Z</time></trkpt><trkpt lat="42.72215283373926" lon="-1.0047043574948304"><ele>644.0</ele><time>2026-03-31T13:12:54Z</time></trkpt><trkpt lat="42.722275807427124" lon="-1.004486233825281"><ele>644.0</ele><time>2026-03-31T13:12:55Z</time></trkpt><trkpt lat="42.72239049605211" lon="-1.0042656944108146"><ele>644.0</ele><time>2026-03-31T13:12:56Z</time></trkpt><trkpt lat="42.722504946498816" lon="-1.0040555228304247"><ele>644.0</ele><time>2026-03-31T13:12:57Z</time></trkpt><trkpt lat="42.72262231214829" lon="-1.0038595602687177"><ele>642.6666666666666</ele><time>2026-03-31T13:12:58Z</time></trkpt><trkpt lat="42.72273511399376" lon="-1.0036730732670869"><ele>641.3333333333334</ele><time>2026-03-31T13:12:59Z</time></trkpt><trkpt lat="42.72283551734849" lon="-1.0034921470838736"><ele>640.0</ele><time>2026-03-31T13:13:00Z</time></trkpt><trkpt lat="42.722912553587676" lon="-1.0033026848125504"><ele>637.3333333333334</ele><time>2026-03-31T13:13:01Z</time></trkpt><trkpt lat="42.72295471741323" lon="-1.0031000552223566"><ele>634.6666666666666</ele><time>2026-03-31T13:13:02Z</time></trkpt><trkpt lat="42.722942811525954" lon="-1.0028915198548431"><ele>632.0</ele><time>2026-03-31T13:13:03Z</time></trkpt><trkpt lat="42.722917982851286" lon="-1.0026729848312577"><ele>631.0</ele><time>2026-03-31T13:13:04Z</time></trkpt><trkpt lat="42.722883365579456" lon="-1.0024464593700477"><ele>630.0</ele><time>2026-03-31T13:13:05Z</time></trkpt><trkpt lat="42.722864686269816" lon="-1.0022172950237924"><ele>629.0</ele><time>2026-03-31T13:13:06Z</time></trkpt><trkpt lat="42.72285770489558" lon="-1.0019898548093853"><ele>629.0</ele><time>2026-03-31T13:13:07Z</time></trkpt><trkpt lat="42.722869416218295" lon="-1.0017746774815495"><ele>629.0</ele><time>2026-03-31T13:13:08Z</time></trkpt><trkpt lat="42.72292449137763" lon="-1.0015699718113809"><ele>629.0</ele><time>2026-03-31T13:13:09Z</time></trkpt><trkpt lat="42.72302055290068" lon="-1.001391899968834"><ele>626.75</ele><time>2026-03-31T13:13:10Z</time></trkpt><trkpt lat="42.72313529712567" lon="-1.001273318688182"><ele>624.5</ele><time>2026-03-31T13:13:11Z</time></trkpt><trkpt lat="42.723273655757026" lon="-1.0012257595876222"><ele>622.25</ele><time>2026-03-31T13:13:12Z</time></trkpt><trkpt lat="42.7234331842364" lon="-1.0012302866985998"><ele>620.0</ele><time>2026-03-31T13:13:13Z</time></trkpt><trkpt lat="42.723584361144354" lon="-1.001203594085627"><ele>620.0</ele><time>2026-03-31T13:13:14Z</time></trkpt><trkpt lat="42.723744176915844" lon="-1.0011688390645717"><ele>620.0</ele><time>2026-03-31T13:13:15Z</time></trkpt><trkpt lat="42.72388402813192" lon="-1.0011638530552833"><ele>620.0</ele><time>2026-03-31T13:13:16Z</time></trkpt><trkpt lat="42.72399828176873" lon="-1.0011981805986763"><ele>620.0</ele><time>2026-03-31T13:13:17Z</time></trkpt><trkpt lat="42.72408539739226" lon="-1.0012079349532959"><ele>620.0</ele><time>2026-03-31T13:13:18Z</time></trkpt><trkpt lat="42.72414998643317" lon="-1.0011250963840193"><ele>620.0</ele><time>2026-03-31T13:13:20Z</time></trkpt><trkpt lat="42.72416850514352" lon="-1.0010031091292833"><ele>620.0</ele><time>2026-03-31T13:13:22Z</time></trkpt><trkpt lat="42.72418754445797" lon="-1.000878921929371"><ele>620.0</ele><time>2026-03-31T13:13:23Z</time></trkpt><trkpt lat="42.72427185264237" lon="-1.0007866199941002"><ele>620.0</ele><time>2026-03-31T13:13:24Z</time></trkpt><trkpt lat="42.72439628908717" lon="-1.000718603677785"><ele>619.0</ele><time>2026-03-31T13:13:25Z</time></trkpt><trkpt lat="42.72452288774629" lon="-1.0006357054126274"><ele>618.0</ele><time>2026-03-31T13:13:26Z</time></trkpt><trkpt lat="42.72466316717281" lon="-1.000508421589129"><ele>617.0</ele><time>2026-03-31T13:13:27Z</time></trkpt><trkpt lat="42.72478904174577" lon="-1.000358470728818"><ele>617.0</ele><time>2026-03-31T13:13:28Z</time></trkpt><trkpt lat="42.72489455617684" lon="-1.0001840703010967"><ele>617.0</ele><time>2026-03-31T13:13:29Z</time></trkpt><trkpt lat="42.724977425474144" lon="-0.9999840705672275"><ele>617.0</ele><time>2026-03-31T13:13:30Z</time></trkpt><trkpt lat="42.72504866895919" lon="-0.9997779101781074"><ele>617.0</ele><time>2026-03-31T13:13:31Z</time></trkpt><trkpt lat="42.72510833560558" lon="-0.9995539193706457"><ele>617.0</ele><time>2026-03-31T13:13:32Z</time></trkpt><trkpt lat="42.72512832060127" lon="-0.9993104662589917"><ele>617.0</ele><time>2026-03-31T13:13:33Z</time></trkpt><trkpt lat="42.72512420271069" lon="-0.9990760872541452"><ele>619.0</ele><time>2026-03-31T13:13:34Z</time></trkpt><trkpt lat="42.72512960365522" lon="-0.9988575979525426"><ele>621.0</ele><time>2026-03-31T13:13:35Z</time></trkpt><trkpt lat="42.725159884904855" lon="-0.9986512912048401"><ele>623.0</ele><time>2026-03-31T13:13:36Z</time></trkpt><trkpt lat="42.725205294396154" lon="-0.9984494509046556"><ele>625.6666666666666</ele><time>2026-03-31T13:13:37Z</time></trkpt><trkpt lat="42.72527817837089" lon="-0.9982464243591754"><ele>628.3333333333334</ele><time>2026-03-31T13:13:38Z</time></trkpt><trkpt lat="42.725386989060205" lon="-0.9980529956862412"><ele>631.0</ele><time>2026-03-31T13:13:39Z</time></trkpt><trkpt lat="42.72552384566596" lon="-0.9978655705722284"><ele>631.0</ele><time>2026-03-31T13:13:40Z</time></trkpt><trkpt lat="42.72566862604042" lon="-0.9976641396616849"><ele>631.0</ele><time>2026-03-31T13:13:41Z</time></trkpt><trkpt lat="42.72581191265526" lon="-0.9974515840077703"><ele>631.0</ele><time>2026-03-31T13:13:42Z</time></trkpt><trkpt lat="42.7259610019737" lon="-0.997229891903711"><ele>632.0</ele><time>2026-03-31T13:13:43Z</time></trkpt><trkpt lat="42.72611280602564" lon="-0.9970133189753424"><ele>633.0</ele><time>2026-03-31T13:13:44Z</time></trkpt><trkpt lat="42.72626439259206" lon="-0.9967900674023559"><ele>634.0</ele><time>2026-03-31T13:13:45Z</time></trkpt><trkpt lat="42.72641834010692" lon="-0.9965606720704481"><ele>631.0</ele><time>2026-03-31T13:13:46Z</time></trkpt><trkpt lat="42.72657359182021" lon="-0.9963353902371228"><ele>628.0</ele><time>2026-03-31T13:13:47Z</time></trkpt><trkpt lat="42.726725110329525" lon="-0.9961084835218715"><ele>628.0</ele><time>2026-03-31T13:13:48Z</time></trkpt><trkpt lat="42.726872608792114" lon="-0.9958873608891362"><ele>628.0</ele><time>2026-03-31T13:13:49Z</time></trkpt><trkpt lat="42.727016523348816" lon="-0.9956726347374273"><ele>628.0</ele><time>2026-03-31T13:13:50Z</time></trkpt><trkpt lat="42.72716131071029" lon="-0.9954621513180781"><ele>628.3333333333334</ele><time>2026-03-31T13:13:51Z</time></trkpt><trkpt lat="42.72730662375651" lon="-0.9952541397604558"><ele>628.6666666666666</ele><time>2026-03-31T13:13:52Z</time></trkpt><trkpt lat="42.72745580031765" lon="-0.9950322797966425"><ele>629.0</ele><time>2026-03-31T13:13:53Z</time></trkpt><trkpt lat="42.7275990653857" lon="-0.9948072519021058"><ele>628.3333333333333</ele><time>2026-03-31T13:13:54Z</time></trkpt><trkpt lat="42.72775040431515" lon="-0.9945724311999076"><ele>627.6666666666666</ele><time>2026-03-31T13:13:55Z</time></trkpt><trkpt lat="42.72789417046183" lon="-0.9943504779849884"><ele>627.0</ele><time>2026-03-31T13:13:56Z</time></trkpt><trkpt lat="42.7280420238256" lon="-0.9941213265059774"><ele>627.0</ele><time>2026-03-31T13:13:57Z</time></trkpt><trkpt lat="42.728188498937016" lon="-0.9938945690901962"><ele>627.0</ele><time>2026-03-31T13:13:58Z</time></trkpt><trkpt lat="42.72833847728791" lon="-0.9936664008143293"><ele>627.0</ele><time>2026-03-31T13:13:59Z</time></trkpt><trkpt lat="42.72849378306473" lon="-0.9934334573207334"><ele>628.0</ele><time>2026-03-31T13:14:00Z</time></trkpt><trkpt lat="42.72865356791936" lon="-0.9931936613666489"><ele>629.0</ele><time>2026-03-31T13:14:01Z</time></trkpt><trkpt lat="42.728809875802334" lon="-0.9929562016765857"><ele>629.0</ele><time>2026-03-31T13:14:02Z</time></trkpt><trkpt lat="42.728967632447244" lon="-0.9927185624444367"><ele>629.0</ele><time>2026-03-31T13:14:03Z</time></trkpt><trkpt lat="42.729128505208315" lon="-0.9924905354881977"><ele>629.0</ele><time>2026-03-31T13:14:04Z</time></trkpt><trkpt lat="42.72929091448346" lon="-0.9922497463845317"><ele>629.0</ele><time>2026-03-31T13:14:05Z</time></trkpt><trkpt lat="42.72945042165176" lon="-0.9920046979309813"><ele>629.0</ele><time>2026-03-31T13:14:06Z</time></trkpt><trkpt lat="42.72961399638774" lon="-0.991754623662678"><ele>629.0</ele><time>2026-03-31T13:14:07Z</time></trkpt><trkpt lat="42.729778477997584" lon="-0.9915100082789634"><ele>628.5</ele><time>2026-03-31T13:14:08Z</time></trkpt><trkpt lat="42.72994535962399" lon="-0.9912663812497805"><ele>628.0</ele><time>2026-03-31T13:14:09Z</time></trkpt><trkpt lat="42.73011510244943" lon="-0.991022281585942"><ele>629.0</ele><time>2026-03-31T13:14:10Z</time></trkpt><trkpt lat="42.73028647156652" lon="-0.990782024886916"><ele>630.0</ele><time>2026-03-31T13:14:11Z</time></trkpt><trkpt lat="42.73045717578641" lon="-0.9905462665208955"><ele>630.0</ele><time>2026-03-31T13:14:12Z</time></trkpt><trkpt lat="42.730628303277385" lon="-0.9903092368925732"><ele>630.0</ele><time>2026-03-31T13:14:13Z</time></trkpt><trkpt lat="42.7308004582124" lon="-0.990059623372316"><ele>629.0</ele><time>2026-03-31T13:14:14Z</time></trkpt><trkpt lat="42.73096509348804" lon="-0.9898015671343725"><ele>628.0</ele><time>2026-03-31T13:14:15Z</time></trkpt><trkpt lat="42.73113045628854" lon="-0.9895465101559231"><ele>629.0</ele><time>2026-03-31T13:14:16Z</time></trkpt><trkpt lat="42.73130203183241" lon="-0.9892996028620034"><ele>630.0</ele><time>2026-03-31T13:14:17Z</time></trkpt><trkpt lat="42.7314719227369" lon="-0.9890538730747925"><ele>630.0</ele><time>2026-03-31T13:14:18Z</time></trkpt><trkpt lat="42.731643661514624" lon="-0.9888132385966739"><ele>630.0</ele><time>2026-03-31T13:14:19Z</time></trkpt><trkpt lat="42.73182067021967" lon="-0.9885843784815725"><ele>631.0</ele><time>2026-03-31T13:14:20Z</time></trkpt><trkpt lat="42.732000832524974" lon="-0.9883530410748268"><ele>632.0</ele><time>2026-03-31T13:14:21Z</time></trkpt><trkpt lat="42.73217512350268" lon="-0.9881212272491086"><ele>632.0</ele><time>2026-03-31T13:14:22Z</time></trkpt><trkpt lat="42.73235058299753" lon="-0.9878907608911912"><ele>632.0</ele><time>2026-03-31T13:14:23Z</time></trkpt><trkpt lat="42.732527838785614" lon="-0.9876604084641095"><ele>632.5</ele><time>2026-03-31T13:14:24Z</time></trkpt><trkpt lat="42.73271071128535" lon="-0.9874255037168418"><ele>633.0</ele><time>2026-03-31T13:14:25Z</time></trkpt><trkpt lat="42.73289263506283" lon="-0.9871942530814453"><ele>633.0</ele><time>2026-03-31T13:14:26Z</time></trkpt><trkpt lat="42.73307237869032" lon="-0.9869560077555414"><ele>633.0</ele><time>2026-03-31T13:14:27Z</time></trkpt><trkpt lat="42.733248626121814" lon="-0.9867151720720883"><ele>632.0</ele><time>2026-03-31T13:14:28Z</time></trkpt><trkpt lat="42.7334264313565" lon="-0.9864819959939394"><ele>631.0</ele><time>2026-03-31T13:14:29Z</time></trkpt><trkpt lat="42.73360523274848" lon="-0.9862506668658338"><ele>633.0</ele><time>2026-03-31T13:14:30Z</time></trkpt><trkpt lat="42.73378565984886" lon="-0.9860204353692403"><ele>635.0</ele><time>2026-03-31T13:14:31Z</time></trkpt><trkpt lat="42.73396153881513" lon="-0.9857890713797807"><ele>635.0</ele><time>2026-03-31T13:14:32Z</time></trkpt><trkpt lat="42.734136317125035" lon="-0.9855564630253092"><ele>635.0</ele><time>2026-03-31T13:14:33Z</time></trkpt><trkpt lat="42.734312526708536" lon="-0.9853271501269204"><ele>633.5</ele><time>2026-03-31T13:14:34Z</time></trkpt><trkpt lat="42.734492251468616" lon="-0.9851039790357052"><ele>632.0</ele><time>2026-03-31T13:14:35Z</time></trkpt><trkpt lat="42.73467073311602" lon="-0.9848805460013769"><ele>632.0</ele><time>2026-03-31T13:14:36Z</time></trkpt><trkpt lat="42.7348446611235" lon="-0.9846513930451176"><ele>632.0</ele><time>2026-03-31T13:14:37Z</time></trkpt><trkpt lat="42.73502078773972" lon="-0.9844220594552574"><ele>632.0</ele><time>2026-03-31T13:14:38Z</time></trkpt><trkpt lat="42.73520582465212" lon="-0.9842100951420544"><ele>632.0</ele><time>2026-03-31T13:14:39Z</time></trkpt><trkpt lat="42.73538768362668" lon="-0.9840018852553368"><ele>633.0</ele><time>2026-03-31T13:14:40Z</time></trkpt><trkpt lat="42.73557659077573" lon="-0.9837939246787195"><ele>634.0</ele><time>2026-03-31T13:14:41Z</time></trkpt><trkpt lat="42.73576686161402" lon="-0.9835908180187305"><ele>634.0</ele><time>2026-03-31T13:14:42Z</time></trkpt><trkpt lat="42.735958899964785" lon="-0.9833948930698144"><ele>634.0</ele><time>2026-03-31T13:14:43Z</time></trkpt><trkpt lat="42.73615216431354" lon="-0.9831974958938267"><ele>635.5</ele><time>2026-03-31T13:14:44Z</time></trkpt><trkpt lat="42.73633823003254" lon="-0.9829930898746465"><ele>637.0</ele><time>2026-03-31T13:14:45Z</time></trkpt><trkpt lat="42.73652277271949" lon="-0.9827867290460093"><ele>637.0</ele><time>2026-03-31T13:14:46Z</time></trkpt><trkpt lat="42.73671273754178" lon="-0.9825882410302227"><ele>637.0</ele><time>2026-03-31T13:14:47Z</time></trkpt><trkpt lat="42.73690148952227" lon="-0.9823985135007158"><ele>638.0</ele><time>2026-03-31T13:14:48Z</time></trkpt><trkpt lat="42.73708899359963" lon="-0.9822063561564395"><ele>639.0</ele><time>2026-03-31T13:14:49Z</time></trkpt><trkpt lat="42.73727744120094" lon="-0.9820198305525072"><ele>639.0</ele><time>2026-03-31T13:14:50Z</time></trkpt><trkpt lat="42.73746935052455" lon="-0.9818445759476961"><ele>639.0</ele><time>2026-03-31T13:14:51Z</time></trkpt><trkpt lat="42.73766166359637" lon="-0.9816856845401265"><ele>637.6666666666666</ele><time>2026-03-31T13:14:52Z</time></trkpt><trkpt lat="42.73785056343452" lon="-0.9815319337807206"><ele>636.3333333333333</ele><time>2026-03-31T13:14:53Z</time></trkpt><trkpt lat="42.73803865823057" lon="-0.9813831202692199"><ele>635.0</ele><time>2026-03-31T13:14:54Z</time></trkpt><trkpt lat="42.73822679567353" lon="-0.9812304804748432"><ele>635.0</ele><time>2026-03-31T13:14:55Z</time></trkpt><trkpt lat="42.73841731833265" lon="-0.9810749514031055"><ele>635.0</ele><time>2026-03-31T13:14:56Z</time></trkpt><trkpt lat="42.73862217673819" lon="-0.9809390663185926"><ele>634.5</ele><time>2026-03-31T13:14:57Z</time></trkpt><trkpt lat="42.73884713569108" lon="-0.9808420123650227"><ele>634.0</ele><time>2026-03-31T13:14:58Z</time></trkpt><trkpt lat="42.73907953019645" lon="-0.9807664964939312"><ele>634.0</ele><time>2026-03-31T13:14:59Z</time></trkpt><trkpt lat="42.73931281968361" lon="-0.980678999483664"><ele>634.0</ele><time>2026-03-31T13:15:00Z</time></trkpt><trkpt lat="42.73953981465781" lon="-0.9805711452447962"><ele>635.5</ele><time>2026-03-31T13:15:01Z</time></trkpt><trkpt lat="42.73976017818766" lon="-0.9804382272923554"><ele>637.0</ele><time>2026-03-31T13:15:02Z</time></trkpt><trkpt lat="42.73997155551628" lon="-0.9802787528744435"><ele>637.0</ele><time>2026-03-31T13:15:03Z</time></trkpt><trkpt lat="42.74017734345217" lon="-0.9801064149042"><ele>637.0</ele><time>2026-03-31T13:15:04Z</time></trkpt><trkpt lat="42.74038779156892" lon="-0.9799391263987176"><ele>637.0</ele><time>2026-03-31T13:15:05Z</time></trkpt><trkpt lat="42.74060874049836" lon="-0.9797972423777505"><ele>637.0</ele><time>2026-03-31T13:15:06Z</time></trkpt><trkpt lat="42.74083844052458" lon="-0.9796961769473095"><ele>638.5</ele><time>2026-03-31T13:15:07Z</time></trkpt><trkpt lat="42.74107728158534" lon="-0.9796393135019087"><ele>640.0</ele><time>2026-03-31T13:15:08Z</time></trkpt><trkpt lat="42.74132331443614" lon="-0.9796304172701404"><ele>640.0</ele><time>2026-03-31T13:15:09Z</time></trkpt><trkpt lat="42.741572522072204" lon="-0.9796299382941601"><ele>640.0</ele><time>2026-03-31T13:15:10Z</time></trkpt><trkpt lat="42.74181966558349" lon="-0.9795838788148349"><ele>642.5</ele><time>2026-03-31T13:15:11Z</time></trkpt><trkpt lat="42.742062197431" lon="-0.9794841312158493"><ele>645.0</ele><time>2026-03-31T13:15:12Z</time></trkpt><trkpt lat="42.74230038775339" lon="-0.9793512526151456"><ele>645.0</ele><time>2026-03-31T13:15:13Z</time></trkpt><trkpt lat="42.74254449343331" lon="-0.9792051072363337"><ele>645.0</ele><time>2026-03-31T13:15:14Z</time></trkpt><trkpt lat="42.742800834214535" lon="-0.9790693852060697"><ele>642.0</ele><time>2026-03-31T13:15:15Z</time></trkpt><trkpt lat="42.74305971556776" lon="-0.9789461956119511"><ele>639.0</ele><time>2026-03-31T13:15:16Z</time></trkpt><trkpt lat="42.743317574329865" lon="-0.97881987520951"><ele>646.0</ele><time>2026-03-31T13:15:17Z</time></trkpt><trkpt lat="42.7435776112771" lon="-0.9786870554786675"><ele>653.0</ele><time>2026-03-31T13:15:18Z</time></trkpt><trkpt lat="42.74382722526456" lon="-0.9785587010235955"><ele>653.0</ele><time>2026-03-31T13:15:19Z</time></trkpt><trkpt lat="42.744079059365276" lon="-0.9784317755475547"><ele>653.0</ele><time>2026-03-31T13:15:20Z</time></trkpt><trkpt lat="42.744326622032695" lon="-0.9783128045309893"><ele>647.0</ele><time>2026-03-31T13:15:21Z</time></trkpt><trkpt lat="42.744568184036865" lon="-0.9781917239688434"><ele>641.0</ele><time>2026-03-31T13:15:22Z</time></trkpt><trkpt lat="42.74480993113512" lon="-0.978063519288299"><ele>641.0</ele><time>2026-03-31T13:15:23Z</time></trkpt><trkpt lat="42.74505224542119" lon="-0.9779422495541271"><ele>641.0</ele><time>2026-03-31T13:15:24Z</time></trkpt><trkpt lat="42.745293201260075" lon="-0.9778378652982934"><ele>648.0</ele><time>2026-03-31T13:15:25Z</time></trkpt><trkpt lat="42.745535801424886" lon="-0.97774746676248"><ele>655.0</ele><time>2026-03-31T13:15:26Z</time></trkpt><trkpt lat="42.745775577225245" lon="-0.977658775790351"><ele>655.0</ele><time>2026-03-31T13:15:27Z</time></trkpt><trkpt lat="42.74600799275465" lon="-0.9775515828904648"><ele>655.0</ele><time>2026-03-31T13:15:28Z</time></trkpt><trkpt lat="42.746228172819954" lon="-0.9774083166812352"><ele>655.5</ele><time>2026-03-31T13:15:29Z</time></trkpt><trkpt lat="42.746426247473416" lon="-0.9772277096655125"><ele>656.0</ele><time>2026-03-31T13:15:30Z</time></trkpt><trkpt lat="42.74661327892584" lon="-0.9770223188192194"><ele>656.0</ele><time>2026-03-31T13:15:31Z</time></trkpt><trkpt lat="42.74680317902537" lon="-0.9768108786014236"><ele>656.0</ele><time>2026-03-31T13:15:32Z</time></trkpt><trkpt lat="42.74700695400777" lon="-0.9766195292649269"><ele>651.5</ele><time>2026-03-31T13:15:33Z</time></trkpt><trkpt lat="42.74722167625403" lon="-0.9764597589539852"><ele>647.0</ele><time>2026-03-31T13:15:34Z</time></trkpt><trkpt lat="42.74744312854384" lon="-0.9763181538715471"><ele>647.0</ele><time>2026-03-31T13:15:35Z</time></trkpt><trkpt lat="42.74765826812392" lon="-0.9761736677212741"><ele>647.0</ele><time>2026-03-31T13:15:36Z</time></trkpt><trkpt lat="42.74786453280532" lon="-0.9760054323368654"><ele>645.0</ele><time>2026-03-31T13:15:37Z</time></trkpt><trkpt lat="42.74805963605909" lon="-0.9758111272538078"><ele>643.0</ele><time>2026-03-31T13:15:38Z</time></trkpt><trkpt lat="42.7482408733498" lon="-0.9755947769674366"><ele>643.0</ele><time>2026-03-31T13:15:39Z</time></trkpt><trkpt lat="42.748410039037324" lon="-0.9753589882414975"><ele>643.0</ele><time>2026-03-31T13:15:40Z</time></trkpt><trkpt lat="42.748574214425446" lon="-0.9751120226246103"><ele>646.5</ele><time>2026-03-31T13:15:41Z</time></trkpt><trkpt lat="42.74873764625841" lon="-0.9748664339638876"><ele>650.0</ele><time>2026-03-31T13:15:42Z</time></trkpt><trkpt lat="42.74890532252283" lon="-0.9746212345217641"><ele>650.0</ele><time>2026-03-31T13:15:43Z</time></trkpt><trkpt lat="42.74906922390816" lon="-0.9743760114039571"><ele>650.0</ele><time>2026-03-31T13:15:44Z</time></trkpt><trkpt lat="42.749225449921866" lon="-0.9741367052940375"><ele>654.0</ele><time>2026-03-31T13:15:45Z</time></trkpt><trkpt lat="42.749385128640846" lon="-0.973906185078151"><ele>658.0</ele><time>2026-03-31T13:15:46Z</time></trkpt><trkpt lat="42.74953761285028" lon="-0.9736926874283137"><ele>658.0</ele><time>2026-03-31T13:15:47Z</time></trkpt><trkpt lat="42.74968859738399" lon="-0.9734914877178446"><ele>658.0</ele><time>2026-03-31T13:15:48Z</time></trkpt><trkpt lat="42.74984228429928" lon="-0.9733050399305896"><ele>658.0</ele><time>2026-03-31T13:15:49Z</time></trkpt><trkpt lat="42.75000962211853" lon="-0.9731301501082873"><ele>656.3333333333334</ele><time>2026-03-31T13:15:50Z</time></trkpt><trkpt lat="42.750192116718516" lon="-0.9729690715296933"><ele>654.6666666666666</ele><time>2026-03-31T13:15:51Z</time></trkpt><trkpt lat="42.75037538855208" lon="-0.9728480330971913"><ele>653.0</ele><time>2026-03-31T13:15:52Z</time></trkpt><trkpt lat="42.750565813797195" lon="-0.9727566033325552"><ele>653.0</ele><time>2026-03-31T13:15:53Z</time></trkpt><trkpt lat="42.75077115347209" lon="-0.9726890969626705"><ele>653.0</ele><time>2026-03-31T13:15:54Z</time></trkpt><trkpt lat="42.75098256425601" lon="-0.972650263467364"><ele>653.0</ele><time>2026-03-31T13:15:55Z</time></trkpt><trkpt lat="42.75120034246112" lon="-0.9726490168706282"><ele>653.5</ele><time>2026-03-31T13:15:56Z</time></trkpt><trkpt lat="42.75142200792848" lon="-0.9726748248779745"><ele>654.0</ele><time>2026-03-31T13:15:57Z</time></trkpt><trkpt lat="42.75165323229166" lon="-0.972700333469201"><ele>653.0</ele><time>2026-03-31T13:15:58Z</time></trkpt><trkpt lat="42.75189064038442" lon="-0.9727161530208097"><ele>652.0</ele><time>2026-03-31T13:15:59Z</time></trkpt><trkpt lat="42.752113755219085" lon="-0.9727346789173871"><ele>652.0</ele><time>2026-03-31T13:16:00Z</time></trkpt><trkpt lat="42.75233972607105" lon="-0.9727563566367277"><ele>652.0</ele><time>2026-03-31T13:16:01Z</time></trkpt><trkpt lat="42.75257103422369" lon="-0.9727775641770346"><ele>652.5</ele><time>2026-03-31T13:16:02Z</time></trkpt><trkpt lat="42.75280033980286" lon="-0.9727971470162358"><ele>653.0</ele><time>2026-03-31T13:16:03Z</time></trkpt><trkpt lat="42.753023907807126" lon="-0.9728131043852695"><ele>653.0</ele><time>2026-03-31T13:16:04Z</time></trkpt><trkpt lat="42.753247051183955" lon="-0.9728287177535112"><ele>653.0</ele><time>2026-03-31T13:16:05Z</time></trkpt><trkpt lat="42.75346445862233" lon="-0.9728443030892436"><ele>653.0</ele><time>2026-03-31T13:16:06Z</time></trkpt><trkpt lat="42.75368471701903" lon="-0.9728640626237057"><ele>654.6666666666666</ele><time>2026-03-31T13:16:07Z</time></trkpt><trkpt lat="42.753900158355734" lon="-0.9728812069189189"><ele>656.3333333333334</ele><time>2026-03-31T13:16:08Z</time></trkpt><trkpt lat="42.75411934799404" lon="-0.972898304329825"><ele>658.0</ele><time>2026-03-31T13:16:09Z</time></trkpt><trkpt lat="42.75433671598199" lon="-0.9729153839900578"><ele>659.0</ele><time>2026-03-31T13:16:10Z</time></trkpt><trkpt lat="42.7545496061132" lon="-0.9729300755863368"><ele>660.0</ele><time>2026-03-31T13:16:11Z</time></trkpt><trkpt lat="42.75475846655839" lon="-0.9729337287788647"><ele>661.0</ele><time>2026-03-31T13:16:12Z</time></trkpt><trkpt lat="42.75496880662021" lon="-0.972921624761142"><ele>661.0</ele><time>2026-03-31T13:16:13Z</time></trkpt><trkpt lat="42.75511767935324" lon="-0.9728874068089021"><ele>661.0</ele><time>2026-03-31T13:16:14Z</time></trkpt><trkpt lat="42.75529656252948" lon="-0.9727752919856264"><ele>661.0</ele><time>2026-03-31T13:16:15Z</time></trkpt><trkpt lat="42.755460449438566" lon="-0.9726526083638325"><ele>663.0</ele><time>2026-03-31T13:16:16Z</time></trkpt><trkpt lat="42.75558291855058" lon="-0.9723744526656988"><ele>665.0</ele><time>2026-03-31T13:16:17Z</time></trkpt><trkpt lat="42.755720070441456" lon="-0.972136628177846"><ele>665.0</ele><time>2026-03-31T13:16:18Z</time></trkpt><trkpt lat="42.7558650647722" lon="-0.9718963750813934"><ele>665.0</ele><time>2026-03-31T13:16:19Z</time></trkpt><trkpt lat="42.75601771484517" lon="-0.9716545418654343"><ele>667.5</ele><time>2026-03-31T13:16:20Z</time></trkpt><trkpt lat="42.7561795914033" lon="-0.9714120841324838"><ele>670.0</ele><time>2026-03-31T13:16:21Z</time></trkpt><trkpt lat="42.756355280749226" lon="-0.9711511373638693"><ele>670.0</ele><time>2026-03-31T13:16:22Z</time></trkpt><trkpt lat="42.756519553849195" lon="-0.9708943567814554"><ele>670.0</ele><time>2026-03-31T13:16:23Z</time></trkpt><trkpt lat="42.75667715151555" lon="-0.9706455041611776"><ele>672.0</ele><time>2026-03-31T13:16:24Z</time></trkpt><trkpt lat="42.756831503164314" lon="-0.9703854410767765"><ele>674.0</ele><time>2026-03-31T13:16:25Z</time></trkpt><trkpt lat="42.75698349702181" lon="-0.9701204865561686"><ele>666.0</ele><time>2026-03-31T13:16:26Z</time></trkpt><trkpt lat="42.757136828220425" lon="-0.9698553233974903"><ele>658.0</ele><time>2026-03-31T13:16:27Z</time></trkpt><trkpt lat="42.75729188525289" lon="-0.9695969002500813"><ele>658.0</ele><time>2026-03-31T13:16:28Z</time></trkpt><trkpt lat="42.757450487196586" lon="-0.9693410601153399"><ele>658.0</ele><time>2026-03-31T13:16:29Z</time></trkpt><trkpt lat="42.75761339994623" lon="-0.9690870075662493"><ele>660.5</ele><time>2026-03-31T13:16:30Z</time></trkpt><trkpt lat="42.757779195271496" lon="-0.9688429949976846"><ele>663.0</ele><time>2026-03-31T13:16:31Z</time></trkpt><trkpt lat="42.75795300523784" lon="-0.9686155939289485"><ele>663.0</ele><time>2026-03-31T13:16:32Z</time></trkpt><trkpt lat="42.75813755128299" lon="-0.9684128566492102"><ele>663.0</ele><time>2026-03-31T13:16:33Z</time></trkpt><trkpt lat="42.75834174798907" lon="-0.9682490130318872"><ele>665.5</ele><time>2026-03-31T13:16:34Z</time></trkpt><trkpt lat="42.75856720408785" lon="-0.968123115111128"><ele>668.0</ele><time>2026-03-31T13:16:35Z</time></trkpt><trkpt lat="42.75880227087026" lon="-0.9680097648690956"><ele>668.0</ele><time>2026-03-31T13:16:36Z</time></trkpt><trkpt lat="42.7590057044663" lon="-0.9678506384050758"><ele>668.0</ele><time>2026-03-31T13:16:37Z</time></trkpt><trkpt lat="42.75919056392309" lon="-0.9676624229017786"><ele>670.0</ele><time>2026-03-31T13:16:38Z</time></trkpt><trkpt lat="42.759339986356395" lon="-0.9674270691222782"><ele>672.0</ele><time>2026-03-31T13:16:39Z</time></trkpt><trkpt lat="42.75946458140881" lon="-0.9671575241003612"><ele>672.0</ele><time>2026-03-31T13:16:40Z</time></trkpt><trkpt lat="42.759589023925365" lon="-0.9668739569104283"><ele>672.0</ele><time>2026-03-31T13:16:41Z</time></trkpt><trkpt lat="42.75973555133832" lon="-0.9665918137806548"><ele>667.5</ele><time>2026-03-31T13:16:42Z</time></trkpt><trkpt lat="42.75989688775249" lon="-0.9663237584736981"><ele>663.0</ele><time>2026-03-31T13:16:43Z</time></trkpt><trkpt lat="42.760052305659286" lon="-0.9660633551533208"><ele>667.5</ele><time>2026-03-31T13:16:44Z</time></trkpt><trkpt lat="42.76020605049373" lon="-0.9658016580470737"><ele>672.0</ele><time>2026-03-31T13:16:45Z</time></trkpt><trkpt lat="42.760373451028705" lon="-0.9655706118045688"><ele>672.0</ele><time>2026-03-31T13:16:46Z</time></trkpt><trkpt lat="42.76055914043278" lon="-0.9653634758187278"><ele>672.0</ele><time>2026-03-31T13:16:47Z</time></trkpt><trkpt lat="42.7607461967168" lon="-0.9651519317769437"><ele>669.5</ele><time>2026-03-31T13:16:48Z</time></trkpt><trkpt lat="42.76092003918734" lon="-0.9649226880504926"><ele>667.0</ele><time>2026-03-31T13:16:49Z</time></trkpt><trkpt lat="42.7610847224522" lon="-0.9646944733227729"><ele>677.0</ele><time>2026-03-31T13:16:50Z</time></trkpt><trkpt lat="42.76126299556611" lon="-0.9644911073138576"><ele>687.0</ele><time>2026-03-31T13:16:51Z</time></trkpt><trkpt lat="42.761452189081645" lon="-0.9643355152628728"><ele>687.0</ele><time>2026-03-31T13:16:52Z</time></trkpt><trkpt lat="42.76163740645872" lon="-0.9642322319420666"><ele>687.0</ele><time>2026-03-31T13:16:53Z</time></trkpt><trkpt lat="42.76181621893935" lon="-0.9641775712487886"><ele>687.0</ele><time>2026-03-31T13:16:54Z</time></trkpt><trkpt lat="42.76200085060237" lon="-0.9641706091395319"><ele>680.6666666666666</ele><time>2026-03-31T13:16:55Z</time></trkpt><trkpt lat="42.76217953387691" lon="-0.9642241664093009"><ele>674.3333333333333</ele><time>2026-03-31T13:16:56Z</time></trkpt><trkpt lat="42.76234350202418" lon="-0.9643413541803022"><ele>668.0</ele><time>2026-03-31T13:16:57Z</time></trkpt><trkpt lat="42.76248731752786" lon="-0.9645136969437731"><ele>668.0</ele><time>2026-03-31T13:16:58Z</time></trkpt><trkpt lat="42.76262416466758" lon="-0.9647046997614251"><ele>668.0</ele><time>2026-03-31T13:16:59Z</time></trkpt><trkpt lat="42.762769342369005" lon="-0.9648871225048227"><ele>668.0</ele><time>2026-03-31T13:17:00Z</time></trkpt><trkpt lat="42.7629369321503" lon="-0.9650535199988355"><ele>669.0</ele><time>2026-03-31T13:17:01Z</time></trkpt><trkpt lat="42.76312705634908" lon="-0.9651806356746822"><ele>670.0</ele><time>2026-03-31T13:17:02Z</time></trkpt><trkpt lat="42.76333345167501" lon="-0.9652589227987598"><ele>671.0</ele><time>2026-03-31T13:17:03Z</time></trkpt><trkpt lat="42.76354848065773" lon="-0.965298397156261"><ele>671.0</ele><time>2026-03-31T13:17:04Z</time></trkpt><trkpt lat="42.76375027435606" lon="-0.9653256899689029"><ele>671.0</ele><time>2026-03-31T13:17:05Z</time></trkpt><trkpt lat="42.763921343275655" lon="-0.9653488601192101"><ele>671.0</ele><time>2026-03-31T13:17:06Z</time></trkpt><trkpt lat="42.764078420107644" lon="-0.9653380768194159"><ele>671.0</ele><time>2026-03-31T13:17:07Z</time></trkpt><trkpt lat="42.76422354960515" lon="-0.9652684960090999"><ele>671.0</ele><time>2026-03-31T13:17:08Z</time></trkpt><trkpt lat="42.76436944574503" lon="-0.965150845710735"><ele>671.0</ele><time>2026-03-31T13:17:09Z</time></trkpt><trkpt lat="42.76454003311326" lon="-0.965019278511695"><ele>668.3333333333333</ele><time>2026-03-31T13:17:10Z</time></trkpt><trkpt lat="42.7647253297992" lon="-0.96488662219674"><ele>665.6666666666666</ele><time>2026-03-31T13:17:11Z</time></trkpt><trkpt lat="42.76491903562882" lon="-0.9647522451081642"><ele>663.0</ele><time>2026-03-31T13:17:12Z</time></trkpt><trkpt lat="42.765119854825286" lon="-0.9646083669548663"><ele>667.0</ele><time>2026-03-31T13:17:13Z</time></trkpt><trkpt lat="42.765328020859236" lon="-0.9644722181236428"><ele>671.0</ele><time>2026-03-31T13:17:14Z</time></trkpt><trkpt lat="42.765542958939484" lon="-0.9643605986451467"><ele>671.0</ele><time>2026-03-31T13:17:15Z</time></trkpt><trkpt lat="42.7657633175895" lon="-0.964269536195894"><ele>671.0</ele><time>2026-03-31T13:17:16Z</time></trkpt><trkpt lat="42.76598993493138" lon="-0.9642065919308228"><ele>676.5</ele><time>2026-03-31T13:17:17Z</time></trkpt><trkpt lat="42.76621625508759" lon="-0.9641728851724316"><ele>682.0</ele><time>2026-03-31T13:17:18Z</time></trkpt><trkpt lat="42.766445639242136" lon="-0.9641704791166469"><ele>674.0</ele><time>2026-03-31T13:17:19Z</time></trkpt><trkpt lat="42.76667652281487" lon="-0.9642093056893318"><ele>666.0</ele><time>2026-03-31T13:17:20Z</time></trkpt><trkpt lat="42.766904529080065" lon="-0.9642913117286371"><ele>666.0</ele><time>2026-03-31T13:17:21Z</time></trkpt><trkpt lat="42.76712016557652" lon="-0.9644036811258392"><ele>666.0</ele><time>2026-03-31T13:17:22Z</time></trkpt><trkpt lat="42.76732659021158" lon="-0.9645377153550789"><ele>666.0</ele><time>2026-03-31T13:17:23Z</time></trkpt><trkpt lat="42.76752746113107" lon="-0.9646934673864389"><ele>666.0</ele><time>2026-03-31T13:17:24Z</time></trkpt><trkpt lat="42.76771191228095" lon="-0.9648699915987279"><ele>665.3333333333334</ele><time>2026-03-31T13:17:25Z</time></trkpt><trkpt lat="42.76789034849399" lon="-0.9650622763697851"><ele>664.6666666666667</ele><time>2026-03-31T13:17:26Z</time></trkpt><trkpt lat="42.76806666518714" lon="-0.9652416487298869"><ele>664.0</ele><time>2026-03-31T13:17:27Z</time></trkpt><trkpt lat="42.76824606142775" lon="-0.9654136198370679"><ele>664.0</ele><time>2026-03-31T13:17:28Z</time></trkpt><trkpt lat="42.76843143843796" lon="-0.9655679962694169"><ele>664.0</ele><time>2026-03-31T13:17:29Z</time></trkpt><trkpt lat="42.76863170184064" lon="-0.9656951812319388"><ele>664.0</ele><time>2026-03-31T13:17:30Z</time></trkpt><trkpt lat="42.768838424862565" lon="-0.9657812294632836"><ele>664.3333333333334</ele><time>2026-03-31T13:17:31Z</time></trkpt><trkpt lat="42.76905225604539" lon="-0.965837225950411"><ele>664.6666666666666</ele><time>2026-03-31T13:17:32Z</time></trkpt><trkpt lat="42.769268946536734" lon="-0.9658762434439362"><ele>665.0</ele><time>2026-03-31T13:17:33Z</time></trkpt><trkpt lat="42.76948673906851" lon="-0.9659009388727261"><ele>665.0</ele><time>2026-03-31T13:17:34Z</time></trkpt><trkpt lat="42.769707495436315" lon="-0.9659107216332995"><ele>665.0</ele><time>2026-03-31T13:17:35Z</time></trkpt><trkpt lat="42.769928104217065" lon="-0.9659221451969203"><ele>665.0</ele><time>2026-03-31T13:17:36Z</time></trkpt><trkpt lat="42.770151929695515" lon="-0.9659367571809208"><ele>665.0</ele><time>2026-03-31T13:17:37Z</time></trkpt><trkpt lat="42.77038082241591" lon="-0.96595111881379"><ele>665.0</ele><time>2026-03-31T13:17:38Z</time></trkpt><trkpt lat="42.770607395294206" lon="-0.9659593136032727"><ele>665.0</ele><time>2026-03-31T13:17:39Z</time></trkpt><trkpt lat="42.77083399721906" lon="-0.9659600554097059"><ele>665.0</ele><time>2026-03-31T13:17:40Z</time></trkpt><trkpt lat="42.771053691094664" lon="-0.9659546325142019"><ele>665.0</ele><time>2026-03-31T13:17:41Z</time></trkpt><trkpt lat="42.77127117141867" lon="-0.9659532480210367"><ele>665.6666666666666</ele><time>2026-03-31T13:17:42Z</time></trkpt><trkpt lat="42.77148849640611" lon="-0.9659590181561756"><ele>666.3333333333334</ele><time>2026-03-31T13:17:43Z</time></trkpt><trkpt lat="42.77171278304039" lon="-0.9659733152272457"><ele>667.0</ele><time>2026-03-31T13:17:44Z</time></trkpt><trkpt lat="42.771939796368414" lon="-0.9659994275772802"><ele>667.0</ele><time>2026-03-31T13:17:45Z</time></trkpt><trkpt lat="42.77217317031789" lon="-0.9660343435785128"><ele>667.0</ele><time>2026-03-31T13:17:46Z</time></trkpt><trkpt lat="42.7724134581003" lon="-0.9660656721356162"><ele>667.0</ele><time>2026-03-31T13:17:47Z</time></trkpt><trkpt lat="42.77265532672685" lon="-0.9660950337506998"><ele>667.0</ele><time>2026-03-31T13:17:48Z</time></trkpt><trkpt lat="42.772892853628804" lon="-0.966114429420937"><ele>666.5</ele><time>2026-03-31T13:17:49Z</time></trkpt><trkpt lat="42.773129913164425" lon="-0.9661049128387877"><ele>666.0</ele><time>2026-03-31T13:17:50Z</time></trkpt><trkpt lat="42.773358232541774" lon="-0.9660408600849254"><ele>666.0</ele><time>2026-03-31T13:17:51Z</time></trkpt><trkpt lat="42.77356864292529" lon="-0.9659362345572021"><ele>666.0</ele><time>2026-03-31T13:17:52Z</time></trkpt><trkpt lat="42.773763629455445" lon="-0.9658069767714934"><ele>666.0</ele><time>2026-03-31T13:17:53Z</time></trkpt><trkpt lat="42.77395436514291" lon="-0.9656592658396468"><ele>666.0</ele><time>2026-03-31T13:17:54Z</time></trkpt><trkpt lat="42.77414613252259" lon="-0.9655019397625317"><ele>666.0</ele><time>2026-03-31T13:17:55Z</time></trkpt><trkpt lat="42.774342123159464" lon="-0.9653410322344251"><ele>665.0</ele><time>2026-03-31T13:17:56Z</time></trkpt><trkpt lat="42.77454180446325" lon="-0.9651725402894896"><ele>664.0</ele><time>2026-03-31T13:17:57Z</time></trkpt><trkpt lat="42.77474378988684" lon="-0.9649963633577845"><ele>670.0</ele><time>2026-03-31T13:17:58Z</time></trkpt><trkpt lat="42.774944782797846" lon="-0.9648137378088465"><ele>676.0</ele><time>2026-03-31T13:17:59Z</time></trkpt><trkpt lat="42.775144910796236" lon="-0.9646228917400445"><ele>672.0</ele><time>2026-03-31T13:18:00Z</time></trkpt><trkpt lat="42.77535238207815" lon="-0.9644574046979651"><ele>668.0</ele><time>2026-03-31T13:18:01Z</time></trkpt><trkpt lat="42.775566990508324" lon="-0.9643062886236631"><ele>670.0</ele><time>2026-03-31T13:18:02Z</time></trkpt><trkpt lat="42.775791846503445" lon="-0.9641933650813026"><ele>672.0</ele><time>2026-03-31T13:18:03Z</time></trkpt><trkpt lat="42.7760219799098" lon="-0.9641145109953901"><ele>672.0</ele><time>2026-03-31T13:18:04Z</time></trkpt><trkpt lat="42.776261069796355" lon="-0.9640518119181326"><ele>672.0</ele><time>2026-03-31T13:18:05Z</time></trkpt><trkpt lat="42.77649757397599" lon="-0.9639823352158766"><ele>672.0</ele><time>2026-03-31T13:18:06Z</time></trkpt><trkpt lat="42.776723174080246" lon="-0.9638778502958637"><ele>672.0</ele><time>2026-03-31T13:18:07Z</time></trkpt><trkpt lat="42.776943212597814" lon="-0.9637440880183964"><ele>670.5</ele><time>2026-03-31T13:18:08Z</time></trkpt><trkpt lat="42.77716060998473" lon="-0.9635774665026802"><ele>669.0</ele><time>2026-03-31T13:18:09Z</time></trkpt><trkpt lat="42.777366775972226" lon="-0.9633839914508615"><ele>669.5</ele><time>2026-03-31T13:18:10Z</time></trkpt><trkpt lat="42.77756989007736" lon="-0.9631864096684729"><ele>670.0</ele><time>2026-03-31T13:18:11Z</time></trkpt><trkpt lat="42.77778088221876" lon="-0.9629946701751317"><ele>670.0</ele><time>2026-03-31T13:18:12Z</time></trkpt><trkpt lat="42.77799414640468" lon="-0.9628049152480068"><ele>670.0</ele><time>2026-03-31T13:18:13Z</time></trkpt><trkpt lat="42.77821145378682" lon="-0.9626231445347351"><ele>670.0</ele><time>2026-03-31T13:18:14Z</time></trkpt><trkpt lat="42.77842755006546" lon="-0.9624369303630705"><ele>670.0</ele><time>2026-03-31T13:18:15Z</time></trkpt><trkpt lat="42.77863908829801" lon="-0.9622581608740819"><ele>670.0</ele><time>2026-03-31T13:18:16Z</time></trkpt><trkpt lat="42.77885279002119" lon="-0.9621080831863982"><ele>670.0</ele><time>2026-03-31T13:18:17Z</time></trkpt><trkpt lat="42.7790776164912" lon="-0.9619975820455018"><ele>670.0</ele><time>2026-03-31T13:18:18Z</time></trkpt><trkpt lat="42.77930459609568" lon="-0.9619497147250786"><ele>670.0</ele><time>2026-03-31T13:18:19Z</time></trkpt><trkpt lat="42.77953322999466" lon="-0.9619560730766427"><ele>669.5</ele><time>2026-03-31T13:18:20Z</time></trkpt><trkpt lat="42.779754532413925" lon="-0.9619126432586641"><ele>669.0</ele><time>2026-03-31T13:18:21Z</time></trkpt><trkpt lat="42.77999273042747" lon="-0.9620674481484414"><ele>670.5</ele><time>2026-03-31T13:18:22Z</time></trkpt><trkpt lat="42.780231018797124" lon="-0.9621272952514953"><ele>672.0</ele><time>2026-03-31T13:18:23Z</time></trkpt><trkpt lat="42.78047270363132" lon="-0.962174784999274"><ele>672.0</ele><time>2026-03-31T13:18:24Z</time></trkpt><trkpt lat="42.78070706006001" lon="-0.9622247553776878"><ele>672.0</ele><time>2026-03-31T13:18:25Z</time></trkpt><trkpt lat="42.780944027561404" lon="-0.9622770014837848"><ele>675.3333333333334</ele><time>2026-03-31T13:18:26Z</time></trkpt><trkpt lat="42.781170607269615" lon="-0.9623256285021912"><ele>678.6666666666667</ele><time>2026-03-31T13:18:27Z</time></trkpt><trkpt lat="42.78138872170814" lon="-0.9623572061551334"><ele>682.0</ele><time>2026-03-31T13:18:28Z</time></trkpt><trkpt lat="42.78161478608172" lon="-0.9623847574934098"><ele>682.0</ele><time>2026-03-31T13:18:29Z</time></trkpt><trkpt lat="42.781832130500696" lon="-0.9623921019831656"><ele>682.0</ele><time>2026-03-31T13:18:30Z</time></trkpt><trkpt lat="42.782050983988874" lon="-0.9623793162915179"><ele>682.0</ele><time>2026-03-31T13:18:31Z</time></trkpt><trkpt lat="42.782267169674405" lon="-0.9623420694513378"><ele>684.0</ele><time>2026-03-31T13:18:32Z</time></trkpt><trkpt lat="42.78247471648239" lon="-0.962280098229815"><ele>686.0</ele><time>2026-03-31T13:18:33Z</time></trkpt><trkpt lat="42.78267118189778" lon="-0.962201734653849"><ele>688.0</ele><time>2026-03-31T13:18:34Z</time></trkpt><trkpt lat="42.78285788019326" lon="-0.962118873206716"><ele>692.3333333333334</ele><time>2026-03-31T13:18:35Z</time></trkpt><trkpt lat="42.78303871308788" lon="-0.9620354603117014"><ele>696.6666666666666</ele><time>2026-03-31T13:18:36Z</time></trkpt><trkpt lat="42.783217997754406" lon="-0.9619500752561299"><ele>701.0</ele><time>2026-03-31T13:18:37Z</time></trkpt><trkpt lat="42.78339711488631" lon="-0.961872609516671"><ele>697.6666666666666</ele><time>2026-03-31T13:18:38Z</time></trkpt><trkpt lat="42.78357540585251" lon="-0.9618209921862481"><ele>694.3333333333334</ele><time>2026-03-31T13:18:39Z</time></trkpt><trkpt lat="42.78375562404049" lon="-0.9618015930132044"><ele>691.0</ele><time>2026-03-31T13:18:40Z</time></trkpt><trkpt lat="42.78394230431264" lon="-0.9617975966688311"><ele>691.0</ele><time>2026-03-31T13:18:41Z</time></trkpt><trkpt lat="42.78412783129648" lon="-0.9617989106409678"><ele>691.0</ele><time>2026-03-31T13:18:42Z</time></trkpt><trkpt lat="42.784309523007586" lon="-0.9617970671590935"><ele>691.0</ele><time>2026-03-31T13:18:43Z</time></trkpt><trkpt lat="42.78448915937564" lon="-0.9617873430480972"><ele>687.0</ele><time>2026-03-31T13:18:44Z</time></trkpt><trkpt lat="42.7846615352259" lon="-0.9617544082749674"><ele>683.0</ele><time>2026-03-31T13:18:45Z</time></trkpt><trkpt lat="42.78482287721107" lon="-0.9617291518161861"><ele>679.0</ele><time>2026-03-31T13:18:46Z</time></trkpt><trkpt lat="42.78498635635967" lon="-0.9617456187843562"><ele>679.0</ele><time>2026-03-31T13:18:47Z</time></trkpt><trkpt lat="42.785146084377615" lon="-0.9617831791984427"><ele>679.0</ele><time>2026-03-31T13:18:48Z</time></trkpt><trkpt lat="42.78530398227101" lon="-0.9618268307088492"><ele>679.0</ele><time>2026-03-31T13:18:49Z</time></trkpt><trkpt lat="42.7854556643543" lon="-0.9618778767823613"><ele>677.6666666666667</ele><time>2026-03-31T13:18:50Z</time></trkpt><trkpt lat="42.78560735575317" lon="-0.9619380833967033"><ele>676.3333333333334</ele><time>2026-03-31T13:18:51Z</time></trkpt><trkpt lat="42.78576043413678" lon="-0.9620037677740733"><ele>675.0</ele><time>2026-03-31T13:18:52Z</time></trkpt><trkpt lat="42.78591410100147" lon="-0.9620729477719868"><ele>676.0</ele><time>2026-03-31T13:18:53Z</time></trkpt><trkpt lat="42.78607396328003" lon="-0.9621462793981417"><ele>677.0</ele><time>2026-03-31T13:18:54Z</time></trkpt><trkpt lat="42.78624588342853" lon="-0.9622128023961866"><ele>678.0</ele><time>2026-03-31T13:18:55Z</time></trkpt><trkpt lat="42.78642684475771" lon="-0.9622573705319913"><ele>678.0</ele><time>2026-03-31T13:18:56Z</time></trkpt><trkpt lat="42.786620938352975" lon="-0.9622729335164215"><ele>678.0</ele><time>2026-03-31T13:18:57Z</time></trkpt><trkpt lat="42.78681711815501" lon="-0.9622431723712801"><ele>678.0</ele><time>2026-03-31T13:18:58Z</time></trkpt><trkpt lat="42.78700538895502" lon="-0.9621732579115323"><ele>677.6666666666666</ele><time>2026-03-31T13:18:59Z</time></trkpt><trkpt lat="42.78718873599425" lon="-0.962080406308222"><ele>677.3333333333333</ele><time>2026-03-31T13:19:00Z</time></trkpt><trkpt lat="42.78737499046914" lon="-0.9619987027199366"><ele>677.0</ele><time>2026-03-31T13:19:01Z</time></trkpt><trkpt lat="42.787561447088294" lon="-0.961942481785114"><ele>677.3333333333333</ele><time>2026-03-31T13:19:02Z</time></trkpt><trkpt lat="42.78774923918131" lon="-0.9619187749316892"><ele>677.6666666666666</ele><time>2026-03-31T13:19:03Z</time></trkpt><trkpt lat="42.78794008009706" lon="-0.9619232701267029"><ele>678.0</ele><time>2026-03-31T13:19:04Z</time></trkpt><trkpt lat="42.788148701714114" lon="-0.9619133682332931"><ele>678.0</ele><time>2026-03-31T13:19:05Z</time></trkpt><trkpt lat="42.78835272366337" lon="-0.961911569807732"><ele>678.0</ele><time>2026-03-31T13:19:06Z</time></trkpt><trkpt lat="42.788562900896004" lon="-0.9619097229832524"><ele>678.0</ele><time>2026-03-31T13:19:07Z</time></trkpt><trkpt lat="42.7887737549551" lon="-0.9619092316543296"><ele>678.3333333333334</ele><time>2026-03-31T13:19:08Z</time></trkpt><trkpt lat="42.78898153698189" lon="-0.961904414940185"><ele>678.6666666666667</ele><time>2026-03-31T13:19:09Z</time></trkpt><trkpt lat="42.789186557438505" lon="-0.961890679845529"><ele>679.0</ele><time>2026-03-31T13:19:10Z</time></trkpt><trkpt lat="42.789390752947625" lon="-0.9618728217662812"><ele>679.3333333333334</ele><time>2026-03-31T13:19:11Z</time></trkpt><trkpt lat="42.78959692209562" lon="-0.9618530489838577"><ele>679.6666666666666</ele><time>2026-03-31T13:19:12Z</time></trkpt><trkpt lat="42.7897982642452" lon="-0.9618306309047502"><ele>680.0</ele><time>2026-03-31T13:19:13Z</time></trkpt><trkpt lat="42.78999655275303" lon="-0.9618058051060328"><ele>679.6666666666666</ele><time>2026-03-31T13:19:14Z</time></trkpt><trkpt lat="42.79019154971087" lon="-0.9617884012607053"><ele>679.3333333333334</ele><time>2026-03-31T13:19:15Z</time></trkpt><trkpt lat="42.79038415122575" lon="-0.9617668923631898"><ele>679.0</ele><time>2026-03-31T13:19:16Z</time></trkpt><trkpt lat="42.790572149343404" lon="-0.9617422579509002"><ele>679.0</ele><time>2026-03-31T13:19:17Z</time></trkpt><trkpt lat="42.79075957741693" lon="-0.9617208987961922"><ele>679.0</ele><time>2026-03-31T13:19:18Z</time></trkpt><trkpt lat="42.79094521498851" lon="-0.961706280158979"><ele>679.0</ele><time>2026-03-31T13:19:19Z</time></trkpt><trkpt lat="42.791124055513734" lon="-0.9616873598080815"><ele>681.0</ele><time>2026-03-31T13:19:20Z</time></trkpt><trkpt lat="42.79130026920273" lon="-0.9616746699745151"><ele>683.0</ele><time>2026-03-31T13:19:21Z</time></trkpt><trkpt lat="42.79147240909195" lon="-0.9616649302426273"><ele>685.0</ele><time>2026-03-31T13:19:22Z</time></trkpt><trkpt lat="42.791641485555324" lon="-0.9616577835003763"><ele>685.0</ele><time>2026-03-31T13:19:23Z</time></trkpt><trkpt lat="42.79180753631119" lon="-0.9616554467383196"><ele>685.0</ele><time>2026-03-31T13:19:24Z</time></trkpt><trkpt lat="42.79204040488812" lon="-0.9615965519125035"><ele>685.0</ele><time>2026-03-31T13:19:25Z</time></trkpt><trkpt lat="42.79220094765572" lon="-0.9615786273236723"><ele>685.0</ele><time>2026-03-31T13:19:26Z</time></trkpt><trkpt lat="42.79233301611831" lon="-0.961570098950472"><ele>685.0</ele><time>2026-03-31T13:19:27Z</time></trkpt><trkpt lat="42.79245934813327" lon="-0.9615641140501725"><ele>685.0</ele><time>2026-03-31T13:19:28Z</time></trkpt><trkpt lat="42.79257776789934" lon="-0.9615593158508127"><ele>685.0</ele><time>2026-03-31T13:19:29Z</time></trkpt><trkpt lat="42.79270242777602" lon="-0.9615505317518428"><ele>685.5</ele><time>2026-03-31T13:19:30Z</time></trkpt><trkpt lat="42.79283228095818" lon="-0.9615427085591974"><ele>686.0</ele><time>2026-03-31T13:19:31Z</time></trkpt><trkpt lat="42.79296591418063" lon="-0.9615314590059968"><ele>686.5</ele><time>2026-03-31T13:19:32Z</time></trkpt><trkpt lat="42.79309801016115" lon="-0.9615134840705645"><ele>687.0</ele><time>2026-03-31T13:19:33Z</time></trkpt><trkpt lat="42.793239940705256" lon="-0.9614861646598608"><ele>687.0</ele><time>2026-03-31T13:19:34Z</time></trkpt><trkpt lat="42.79339871386506" lon="-0.9614360516879582"><ele>687.0</ele><time>2026-03-31T13:19:35Z</time></trkpt><trkpt lat="42.793562624894165" lon="-0.9613597873600502"><ele>687.0</ele><time>2026-03-31T13:19:36Z</time></trkpt><trkpt lat="42.793735242067406" lon="-0.9612625847001317"><ele>686.3333333333334</ele><time>2026-03-31T13:19:37Z</time></trkpt><trkpt lat="42.7939164403681" lon="-0.9611643102842637"><ele>685.6666666666667</ele><time>2026-03-31T13:19:38Z</time></trkpt><trkpt lat="42.794087282523485" lon="-0.9610641429589559"><ele>685.0</ele><time>2026-03-31T13:19:39Z</time></trkpt><trkpt lat="42.79426467677511" lon="-0.9609638634576412"><ele>685.3333333333334</ele><time>2026-03-31T13:19:40Z</time></trkpt><trkpt lat="42.79444602341885" lon="-0.9608716685601814"><ele>685.6666666666666</ele><time>2026-03-31T13:19:41Z</time></trkpt><trkpt lat="42.79463343179154" lon="-0.960772715558251"><ele>686.0</ele><time>2026-03-31T13:19:42Z</time></trkpt><trkpt lat="42.79482424463434" lon="-0.9606635901376137"><ele>686.0</ele><time>2026-03-31T13:19:43Z</time></trkpt><trkpt lat="42.795021685905155" lon="-0.9605513926650593"><ele>686.0</ele><time>2026-03-31T13:19:44Z</time></trkpt><trkpt lat="42.79522638043887" lon="-0.9604405197967782"><ele>686.0</ele><time>2026-03-31T13:19:45Z</time></trkpt><trkpt lat="42.795426343208334" lon="-0.9603285250113842"><ele>684.5</ele><time>2026-03-31T13:19:46Z</time></trkpt><trkpt lat="42.795640346929424" lon="-0.9602142200953014"><ele>683.0</ele><time>2026-03-31T13:19:47Z</time></trkpt><trkpt lat="42.79584735678428" lon="-0.9601016930803975"><ele>684.3333333333333</ele><time>2026-03-31T13:19:48Z</time></trkpt><trkpt lat="42.796053855439936" lon="-0.9599909363938759"><ele>685.6666666666666</ele><time>2026-03-31T13:19:49Z</time></trkpt><trkpt lat="42.796260635709636" lon="-0.9598814178630833"><ele>687.0</ele><time>2026-03-31T13:19:50Z</time></trkpt><trkpt lat="42.7964645720748" lon="-0.9597752372971174"><ele>687.0</ele><time>2026-03-31T13:19:51Z</time></trkpt><trkpt lat="42.79668580489715" lon="-0.9596660869682271"><ele>687.0</ele><time>2026-03-31T13:19:52Z</time></trkpt><trkpt lat="42.79690930154641" lon="-0.9595706771125653"><ele>686.5</ele><time>2026-03-31T13:19:53Z</time></trkpt><trkpt lat="42.79712963166182" lon="-0.9594943308590893"><ele>686.0</ele><time>2026-03-31T13:19:54Z</time></trkpt><trkpt lat="42.797345904655394" lon="-0.9594243936236249"><ele>686.0</ele><time>2026-03-31T13:19:55Z</time></trkpt><trkpt lat="42.7975628827532" lon="-0.9593518856948401"><ele>686.0</ele><time>2026-03-31T13:19:56Z</time></trkpt><trkpt lat="42.797775893606875" lon="-0.959283300832783"><ele>686.0</ele><time>2026-03-31T13:19:57Z</time></trkpt><trkpt lat="42.797992323696064" lon="-0.9592175615310047"><ele>687.6666666666666</ele><time>2026-03-31T13:19:58Z</time></trkpt><trkpt lat="42.79821078884233" lon="-0.9591585685217302"><ele>689.3333333333334</ele><time>2026-03-31T13:19:59Z</time></trkpt><trkpt lat="42.798428048770795" lon="-0.9591123993761295"><ele>691.0</ele><time>2026-03-31T13:20:00Z</time></trkpt><trkpt lat="42.7986518677068" lon="-0.9590601691973338"><ele>691.0</ele><time>2026-03-31T13:20:01Z</time></trkpt><trkpt lat="42.798875957650246" lon="-0.9589879150068567"><ele>691.0</ele><time>2026-03-31T13:20:02Z</time></trkpt><trkpt lat="42.79909876046961" lon="-0.9589094283018484"><ele>691.0</ele><time>2026-03-31T13:20:03Z</time></trkpt><trkpt lat="42.79932035617882" lon="-0.9588311205505733"><ele>691.0</ele><time>2026-03-31T13:20:04Z</time></trkpt><trkpt lat="42.799546729445986" lon="-0.9587475359314052"><ele>691.5</ele><time>2026-03-31T13:20:05Z</time></trkpt><trkpt lat="42.79977500685058" lon="-0.9586599256205316"><ele>692.0</ele><time>2026-03-31T13:20:06Z</time></trkpt><trkpt lat="42.80000357211368" lon="-0.9585758350778706"><ele>690.5</ele><time>2026-03-31T13:20:07Z</time></trkpt><trkpt lat="42.80022904902979" lon="-0.9584989331887875"><ele>689.0</ele><time>2026-03-31T13:20:08Z</time></trkpt><trkpt lat="42.80046198101835" lon="-0.9584201503196018"><ele>693.5</ele><time>2026-03-31T13:20:09Z</time></trkpt><trkpt lat="42.80068980242721" lon="-0.9583408229364773"><ele>698.0</ele><time>2026-03-31T13:20:10Z</time></trkpt><trkpt lat="42.80091920723463" lon="-0.9582668259390585"><ele>695.5</ele><time>2026-03-31T13:20:11Z</time></trkpt><trkpt lat="42.801147368465266" lon="-0.9581920653248923"><ele>693.0</ele><time>2026-03-31T13:20:12Z</time></trkpt><trkpt lat="42.80137885677363" lon="-0.9581072756672753"><ele>693.0</ele><time>2026-03-31T13:20:13Z</time></trkpt><trkpt lat="42.80160597819218" lon="-0.9580031885078624"><ele>693.0</ele><time>2026-03-31T13:20:14Z</time></trkpt><trkpt lat="42.801827237328055" lon="-0.95787318744099"><ele>692.5</ele><time>2026-03-31T13:20:15Z</time></trkpt><trkpt lat="42.80204124696864" lon="-0.9577246330630051"><ele>692.0</ele><time>2026-03-31T13:20:16Z</time></trkpt><trkpt lat="42.80225359241953" lon="-0.9575745177347059"><ele>693.0</ele><time>2026-03-31T13:20:17Z</time></trkpt><trkpt lat="42.80246555339956" lon="-0.9574276706140216"><ele>694.0</ele><time>2026-03-31T13:20:18Z</time></trkpt><trkpt lat="42.80268043714462" lon="-0.9572886332126749"><ele>694.0</ele><time>2026-03-31T13:20:19Z</time></trkpt><trkpt lat="42.80289209064571" lon="-0.9571485061253571"><ele>694.0</ele><time>2026-03-31T13:20:20Z</time></trkpt><trkpt lat="42.80310739037726" lon="-0.9570026463086867"><ele>694.0</ele><time>2026-03-31T13:20:21Z</time></trkpt><trkpt lat="42.80331179390319" lon="-0.9568694991694616"><ele>694.0</ele><time>2026-03-31T13:20:22Z</time></trkpt><trkpt lat="42.80351225597992" lon="-0.9567577251569095"><ele>694.0</ele><time>2026-03-31T13:20:23Z</time></trkpt><trkpt lat="42.80371013399141" lon="-0.9566561143984345"><ele>694.3333333333334</ele><time>2026-03-31T13:20:24Z</time></trkpt><trkpt lat="42.803897712362485" lon="-0.9565494492625519"><ele>694.6666666666666</ele><time>2026-03-31T13:20:25Z</time></trkpt><trkpt lat="42.80406410064051" lon="-0.9564693141594246"><ele>695.0</ele><time>2026-03-31T13:20:26Z</time></trkpt><trkpt lat="42.80433869199226" lon="-0.9567838792294661"><ele>695.0</ele><time>2026-03-31T13:20:27Z</time></trkpt><trkpt lat="42.80454579060811" lon="-0.9568728674462702"><ele>695.0</ele><time>2026-03-31T13:20:28Z</time></trkpt><trkpt lat="42.80474307937937" lon="-0.956941960070918"><ele>695.0</ele><time>2026-03-31T13:20:29Z</time></trkpt><trkpt lat="42.80492814455239" lon="-0.956989633040537"><ele>695.0</ele><time>2026-03-31T13:20:30Z</time></trkpt><trkpt lat="42.80510821936686" lon="-0.9570197031947343"><ele>695.0</ele><time>2026-03-31T13:20:31Z</time></trkpt><trkpt lat="42.805294928457485" lon="-0.9570121183742911"><ele>695.0</ele><time>2026-03-31T13:20:32Z</time></trkpt><trkpt lat="42.80547617574858" lon="-0.9569620351891484"><ele>695.3333333333333</ele><time>2026-03-31T13:20:33Z</time></trkpt><trkpt lat="42.80563274484451" lon="-0.9568873783062712"><ele>695.6666666666666</ele><time>2026-03-31T13:20:34Z</time></trkpt><trkpt lat="42.805784456166776" lon="-0.95681020145834"><ele>696.0</ele><time>2026-03-31T13:20:35Z</time></trkpt><trkpt lat="42.805933531757006" lon="-0.9567198494641097"><ele>696.0</ele><time>2026-03-31T13:20:36Z</time></trkpt><trkpt lat="42.80607164588496" lon="-0.9566015259129287"><ele>696.0</ele><time>2026-03-31T13:20:37Z</time></trkpt><trkpt lat="42.80619921807709" lon="-0.9564528523005648"><ele>696.0</ele><time>2026-03-31T13:20:38Z</time></trkpt><trkpt lat="42.80631271940404" lon="-0.9563013517645539"><ele>696.0</ele><time>2026-03-31T13:20:39Z</time></trkpt><trkpt lat="42.80642498279549" lon="-0.9561661604604903"><ele>696.0</ele><time>2026-03-31T13:20:40Z</time></trkpt><trkpt lat="42.80652624996563" lon="-0.956053780613172"><ele>696.0</ele><time>2026-03-31T13:20:41Z</time></trkpt><trkpt lat="42.806622268110715" lon="-0.9559436036714547"><ele>696.0</ele><time>2026-03-31T13:20:42Z</time></trkpt><trkpt lat="42.806706491010814" lon="-0.9558454927663337"><ele>696.1999999999999</ele><time>2026-03-31T13:20:43Z</time></trkpt><trkpt lat="42.806784385178894" lon="-0.9557530803713007"><ele>696.4</ele><time>2026-03-31T13:20:44Z</time></trkpt><trkpt lat="42.80686860928129" lon="-0.9556568543335188"><ele>696.6</ele><time>2026-03-31T13:20:45Z</time></trkpt><trkpt lat="42.8069514059827" lon="-0.9555809501920429"><ele>696.8</ele><time>2026-03-31T13:20:46Z</time></trkpt><trkpt lat="42.807036084553644" lon="-0.9555496011315288"><ele>697.0</ele><time>2026-03-31T13:20:47Z</time></trkpt><trkpt lat="42.80712272858767" lon="-0.95556621956415"><ele>697.0</ele><time>2026-03-31T13:20:48Z</time></trkpt><trkpt lat="42.8072119187038" lon="-0.9556219836367911"><ele>697.0</ele><time>2026-03-31T13:20:49Z</time></trkpt><trkpt lat="42.80728801716716" lon="-0.9556832195404686"><ele>697.0</ele><time>2026-03-31T13:20:50Z</time></trkpt><trkpt lat="42.807355032793076" lon="-0.955720720199903"><ele>697.0</ele><time>2026-03-31T13:20:51Z</time></trkpt><trkpt lat="42.80743200141901" lon="-0.9557250561994459"><ele>697.0</ele><time>2026-03-31T13:20:52Z</time></trkpt><trkpt lat="42.80751188212929" lon="-0.9556969878585418"><ele>697.0</ele><time>2026-03-31T13:20:53Z</time></trkpt><trkpt lat="42.80757816000275" lon="-0.9556379221035686"><ele>697.0</ele><time>2026-03-31T13:20:54Z</time></trkpt><trkpt lat="42.807649129991" lon="-0.9555467539586958"><ele>697.0</ele><time>2026-03-31T13:20:55Z</time></trkpt><trkpt lat="42.807750669179924" lon="-0.9554478648142039"><ele>697.0</ele><time>2026-03-31T13:20:56Z</time></trkpt><trkpt lat="42.80787576934681" lon="-0.955388071294441"><ele>697.0</ele><time>2026-03-31T13:20:57Z</time></trkpt><trkpt lat="42.80798595421251" lon="-0.9553614474919114"><ele>698.0</ele><time>2026-03-31T13:20:58Z</time></trkpt><trkpt lat="42.80808892687777" lon="-0.9553513449157744"><ele>699.0</ele><time>2026-03-31T13:20:59Z</time></trkpt><trkpt lat="42.80818689320959" lon="-0.955343939866817"><ele>700.0</ele><time>2026-03-31T13:21:00Z</time></trkpt><trkpt lat="42.80827173258838" lon="-0.9553349423304621"><ele>701.0</ele><time>2026-03-31T13:21:01Z</time></trkpt><trkpt lat="42.808346208803535" lon="-0.9553146848029144"><ele>702.0</ele><time>2026-03-31T13:21:02Z</time></trkpt><trkpt lat="42.80841636028579" lon="-0.9552981690645028"><ele>703.0</ele><time>2026-03-31T13:21:03Z</time></trkpt><trkpt lat="42.80849029531377" lon="-0.9552745026662635"><ele>703.8333333333334</ele><time>2026-03-31T13:21:04Z</time></trkpt><trkpt lat="42.80856250138607" lon="-0.9552559043344343"><ele>704.6666666666667</ele><time>2026-03-31T13:21:05Z</time></trkpt><trkpt lat="42.808632659020724" lon="-0.9552420718392486"><ele>705.5</ele><time>2026-03-31T13:21:06Z</time></trkpt><trkpt lat="42.808694908400895" lon="-0.9552265258307742"><ele>706.3333333333334</ele><time>2026-03-31T13:21:07Z</time></trkpt><trkpt lat="42.808809292468965" lon="-0.9551937908489686"><ele>707.1666666666666</ele><time>2026-03-31T13:21:09Z</time></trkpt><trkpt lat="42.80887698294741" lon="-0.9551828512538898"><ele>708.0</ele><time>2026-03-31T13:21:10Z</time></trkpt><trkpt lat="42.80898106361353" lon="-0.9551839275386932"><ele>708.0</ele><time>2026-03-31T13:21:11Z</time></trkpt><trkpt lat="42.809104899898024" lon="-0.9551934748639473"><ele>708.0</ele><time>2026-03-31T13:21:12Z</time></trkpt><trkpt lat="42.80922317994284" lon="-0.9552163436139042"><ele>708.0</ele><time>2026-03-31T13:21:13Z</time></trkpt><trkpt lat="42.80935469630269" lon="-0.9552414572657045"><ele>708.0</ele><time>2026-03-31T13:21:14Z</time></trkpt><trkpt lat="42.8095040747691" lon="-0.9552610169031714"><ele>711.0</ele><time>2026-03-31T13:21:15Z</time></trkpt><trkpt lat="42.80964723159472" lon="-0.9552884923066546"><ele>714.0</ele><time>2026-03-31T13:21:16Z</time></trkpt><trkpt lat="42.80977752345468" lon="-0.9553293868796751"><ele>717.0</ele><time>2026-03-31T13:21:17Z</time></trkpt><trkpt lat="42.80990481052529" lon="-0.9553767424043162"><ele>720.0</ele><time>2026-03-31T13:21:18Z</time></trkpt><trkpt lat="42.81004105220623" lon="-0.9554126282386037"><ele>722.25</ele><time>2026-03-31T13:21:19Z</time></trkpt><trkpt lat="42.810181803522845" lon="-0.9554342011836745"><ele>724.5</ele><time>2026-03-31T13:21:20Z</time></trkpt><trkpt lat="42.81032278989711" lon="-0.9554524215060635"><ele>726.75</ele><time>2026-03-31T13:21:21Z</time></trkpt><trkpt lat="42.810475171234536" lon="-0.9554558381327342"><ele>729.0</ele><time>2026-03-31T13:21:22Z</time></trkpt><trkpt lat="42.81064846560081" lon="-0.9554518999415884"><ele>729.0</ele><time>2026-03-31T13:21:23Z</time></trkpt><trkpt lat="42.81083101598761" lon="-0.9554446997296772"><ele>729.0</ele><time>2026-03-31T13:21:24Z</time></trkpt><trkpt lat="42.81101573379846" lon="-0.9554337252181409"><ele>729.0</ele><time>2026-03-31T13:21:25Z</time></trkpt><trkpt lat="42.81120103379056" lon="-0.9554108124047258"><ele>735.0</ele><time>2026-03-31T13:21:26Z</time></trkpt><trkpt lat="42.81138705551651" lon="-0.9553724463452286"><ele>741.0</ele><time>2026-03-31T13:21:27Z</time></trkpt><trkpt lat="42.811576074193376" lon="-0.9553408853387263"><ele>747.0</ele><time>2026-03-31T13:21:28Z</time></trkpt><trkpt lat="42.81176911702705" lon="-0.9553334928331734"><ele>750.6666666666666</ele><time>2026-03-31T13:21:29Z</time></trkpt><trkpt lat="42.81196067375509" lon="-0.9553088909465961"><ele>754.3333333333333</ele><time>2026-03-31T13:21:30Z</time></trkpt><trkpt lat="42.81215483906504" lon="-0.9552404484140765"><ele>758.0</ele><time>2026-03-31T13:21:31Z</time></trkpt><trkpt lat="42.81235508337889" lon="-0.9551295919916659"><ele>741.0</ele><time>2026-03-31T13:21:32Z</time></trkpt><trkpt lat="42.81255251668251" lon="-0.954982144935568"><ele>724.0</ele><time>2026-03-31T13:21:33Z</time></trkpt><trkpt lat="42.81275157228516" lon="-0.9548201316900412"><ele>724.0</ele><time>2026-03-31T13:21:34Z</time></trkpt><trkpt lat="42.81296535523735" lon="-0.9546820325863936"><ele>724.0</ele><time>2026-03-31T13:21:35Z</time></trkpt><trkpt lat="42.81318694264162" lon="-0.9545635360042907"><ele>724.0</ele><time>2026-03-31T13:21:36Z</time></trkpt><trkpt lat="42.8133965457608" lon="-0.9544426991562516"><ele>724.0</ele><time>2026-03-31T13:21:37Z</time></trkpt><trkpt lat="42.81359775871537" lon="-0.9543036461698756"><ele>723.5</ele><time>2026-03-31T13:21:38Z</time></trkpt><trkpt lat="42.813791217313074" lon="-0.9541416782253128"><ele>723.0</ele><time>2026-03-31T13:21:39Z</time></trkpt><trkpt lat="42.81398076539117" lon="-0.9539690562473309"><ele>723.0</ele><time>2026-03-31T13:21:40Z</time></trkpt><trkpt lat="42.81415941368345" lon="-0.9537916816865852"><ele>723.0</ele><time>2026-03-31T13:21:41Z</time></trkpt><trkpt lat="42.81433509906201" lon="-0.953601791706268"><ele>723.0</ele><time>2026-03-31T13:21:42Z</time></trkpt><trkpt lat="42.814514556326415" lon="-0.9534017908420015"><ele>724.5</ele><time>2026-03-31T13:21:43Z</time></trkpt><trkpt lat="42.81469766404108" lon="-0.9532064734473118"><ele>726.0</ele><time>2026-03-31T13:21:44Z</time></trkpt><trkpt lat="42.81487996390174" lon="-0.9530151383056789"><ele>726.0</ele><time>2026-03-31T13:21:45Z</time></trkpt><trkpt lat="42.815059110451884" lon="-0.9528214258590386"><ele>726.0</ele><time>2026-03-31T13:21:46Z</time></trkpt><trkpt lat="42.81523682807741" lon="-0.9526303419502534"><ele>726.5</ele><time>2026-03-31T13:21:47Z</time></trkpt><trkpt lat="42.8154207252603" lon="-0.9524515729836723"><ele>727.0</ele><time>2026-03-31T13:21:48Z</time></trkpt><trkpt lat="42.815621838703095" lon="-0.9522815336408592"><ele>727.0</ele><time>2026-03-31T13:21:49Z</time></trkpt><trkpt lat="42.815824617976915" lon="-0.9521447541513762"><ele>727.0</ele><time>2026-03-31T13:21:50Z</time></trkpt><trkpt lat="42.81603325107547" lon="-0.9520190373139624"><ele>731.3333333333334</ele><time>2026-03-31T13:21:51Z</time></trkpt><trkpt lat="42.81621781854786" lon="-0.9519150029991215"><ele>735.6666666666666</ele><time>2026-03-31T13:21:52Z</time></trkpt><trkpt lat="42.81640184073506" lon="-0.9518480570343856"><ele>740.0</ele><time>2026-03-31T13:21:53Z</time></trkpt><trkpt lat="42.81659641119824" lon="-0.9518440359249427"><ele>740.0</ele><time>2026-03-31T13:21:54Z</time></trkpt><trkpt lat="42.81681081115686" lon="-0.9518822119308583"><ele>740.0</ele><time>2026-03-31T13:21:55Z</time></trkpt><trkpt lat="42.81703782289083" lon="-0.951904216945902"><ele>740.0</ele><time>2026-03-31T13:21:56Z</time></trkpt><trkpt lat="42.8172597538366" lon="-0.9518503596658536"><ele>742.6666666666666</ele><time>2026-03-31T13:21:57Z</time></trkpt><trkpt lat="42.81744668019773" lon="-0.9517847424583253"><ele>745.3333333333334</ele><time>2026-03-31T13:21:58Z</time></trkpt><trkpt lat="42.81764031476753" lon="-0.9517778236880832"><ele>748.0</ele><time>2026-03-31T13:21:59Z</time></trkpt><trkpt lat="42.81783910268204" lon="-0.9517692688471572"><ele>744.6666666666667</ele><time>2026-03-31T13:22:00Z</time></trkpt><trkpt lat="42.81803860195971" lon="-0.9516975571301095"><ele>741.3333333333334</ele><time>2026-03-31T13:22:01Z</time></trkpt><trkpt lat="42.818217628338594" lon="-0.9515651078073165"><ele>738.0</ele><time>2026-03-31T13:22:02Z</time></trkpt><trkpt lat="42.81839592532974" lon="-0.951399726518516"><ele>746.5</ele><time>2026-03-31T13:22:03Z</time></trkpt><trkpt lat="42.81858779517631" lon="-0.9512319012574894"><ele>755.0</ele><time>2026-03-31T13:22:04Z</time></trkpt><trkpt lat="42.81880395173822" lon="-0.9510811159015278"><ele>755.0</ele><time>2026-03-31T13:22:05Z</time></trkpt><trkpt lat="42.819021848531264" lon="-0.9509430916490961"><ele>755.0</ele><time>2026-03-31T13:22:06Z</time></trkpt><trkpt lat="42.819239436306475" lon="-0.9508007613777759"><ele>753.5</ele><time>2026-03-31T13:22:07Z</time></trkpt><trkpt lat="42.81944744408481" lon="-0.95065768226708"><ele>752.0</ele><time>2026-03-31T13:22:08Z</time></trkpt><trkpt lat="42.81965005413788" lon="-0.9505123663000022"><ele>752.0</ele><time>2026-03-31T13:22:09Z</time></trkpt><trkpt lat="42.81985736077851" lon="-0.9503664112887679"><ele>752.0</ele><time>2026-03-31T13:22:10Z</time></trkpt><trkpt lat="42.82006350312057" lon="-0.9502402237660749"><ele>747.0</ele><time>2026-03-31T13:22:11Z</time></trkpt><trkpt lat="42.820276548082745" lon="-0.9501301033122711"><ele>742.0</ele><time>2026-03-31T13:22:12Z</time></trkpt><trkpt lat="42.82049744388616" lon="-0.9500288464375949"><ele>742.0</ele><time>2026-03-31T13:22:13Z</time></trkpt><trkpt lat="42.82071740632556" lon="-0.9499386345723853"><ele>742.0</ele><time>2026-03-31T13:22:14Z</time></trkpt><trkpt lat="42.820935009394404" lon="-0.9498563608667546"><ele>745.5</ele><time>2026-03-31T13:22:15Z</time></trkpt><trkpt lat="42.82117230103471" lon="-0.949781607021577"><ele>749.0</ele><time>2026-03-31T13:22:16Z</time></trkpt><trkpt lat="42.82139721060362" lon="-0.949709117134281"><ele>749.0</ele><time>2026-03-31T13:22:17Z</time></trkpt><trkpt lat="42.82163113337707" lon="-0.949660792034839"><ele>749.0</ele><time>2026-03-31T13:22:18Z</time></trkpt><trkpt lat="42.82186910121864" lon="-0.9496096000415073"><ele>754.5</ele><time>2026-03-31T13:22:19Z</time></trkpt><trkpt lat="42.82209498078571" lon="-0.9495230705798915"><ele>760.0</ele><time>2026-03-31T13:22:20Z</time></trkpt><trkpt lat="42.82232020415401" lon="-0.9494380801278332"><ele>760.0</ele><time>2026-03-31T13:22:21Z</time></trkpt><trkpt lat="42.82255303902003" lon="-0.9493870947950613"><ele>760.0</ele><time>2026-03-31T13:22:22Z</time></trkpt><trkpt lat="42.822784314896396" lon="-0.9493515907713986"><ele>763.6666666666667</ele><time>2026-03-31T13:22:23Z</time></trkpt><trkpt lat="42.823011118397126" lon="-0.9493101382058867"><ele>767.3333333333334</ele><time>2026-03-31T13:22:24Z</time></trkpt><trkpt lat="42.82322787292295" lon="-0.9492725035189822"><ele>771.0</ele><time>2026-03-31T13:22:25Z</time></trkpt><trkpt lat="42.82344018455248" lon="-0.9492389746994472"><ele>764.0</ele><time>2026-03-31T13:22:26Z</time></trkpt><trkpt lat="42.823644453189594" lon="-0.9492008721010354"><ele>757.0</ele><time>2026-03-31T13:22:27Z</time></trkpt><trkpt lat="42.82384081390065" lon="-0.9491386410821645"><ele>750.0</ele><time>2026-03-31T13:22:28Z</time></trkpt><trkpt lat="42.824025791605926" lon="-0.9490508466000184"><ele>750.0</ele><time>2026-03-31T13:22:29Z</time></trkpt><trkpt lat="42.82420898816617" lon="-0.9489132242235725"><ele>750.0</ele><time>2026-03-31T13:22:30Z</time></trkpt><trkpt lat="42.82440805903754" lon="-0.9487725821975153"><ele>750.0</ele><time>2026-03-31T13:22:31Z</time></trkpt><trkpt lat="42.82461789716187" lon="-0.9486506714708365"><ele>753.6666666666666</ele><time>2026-03-31T13:22:32Z</time></trkpt><trkpt lat="42.824833261152975" lon="-0.9485274585669577"><ele>757.3333333333333</ele><time>2026-03-31T13:22:33Z</time></trkpt><trkpt lat="42.825027452706614" lon="-0.9484044886040636"><ele>761.0</ele><time>2026-03-31T13:22:34Z</time></trkpt><trkpt lat="42.82522544451601" lon="-0.9482880624695194"><ele>753.6666666666666</ele><time>2026-03-31T13:22:35Z</time></trkpt><trkpt lat="42.82540760795212" lon="-0.9481821428007576"><ele>746.3333333333334</ele><time>2026-03-31T13:22:36Z</time></trkpt><trkpt lat="42.8255843072462" lon="-0.9480879843100977"><ele>739.0</ele><time>2026-03-31T13:22:37Z</time></trkpt><trkpt lat="42.82575365012622" lon="-0.9480041174701012"><ele>739.0</ele><time>2026-03-31T13:22:38Z</time></trkpt><trkpt lat="42.825919992082724" lon="-0.9479396936405136"><ele>739.0</ele><time>2026-03-31T13:22:39Z</time></trkpt><trkpt lat="42.826101688030654" lon="-0.9479091369272845"><ele>739.0</ele><time>2026-03-31T13:22:40Z</time></trkpt><trkpt lat="42.82630648270891" lon="-0.9479081957263256"><ele>740.6666666666667</ele><time>2026-03-31T13:22:41Z</time></trkpt><trkpt lat="42.82652780199436" lon="-0.947921360767347"><ele>742.3333333333334</ele><time>2026-03-31T13:22:42Z</time></trkpt><trkpt lat="42.826750244804536" lon="-0.9479312185438284"><ele>744.0</ele><time>2026-03-31T13:22:43Z</time></trkpt><trkpt lat="42.8269531772133" lon="-0.9479388890931645"><ele>744.3333333333334</ele><time>2026-03-31T13:22:44Z</time></trkpt><trkpt lat="42.82716467160527" lon="-0.9479708145605635"><ele>744.6666666666667</ele><time>2026-03-31T13:22:45Z</time></trkpt><trkpt lat="42.827368818550916" lon="-0.9480194441935464"><ele>745.0</ele><time>2026-03-31T13:22:46Z</time></trkpt><trkpt lat="42.82757246288173" lon="-0.9480905920945175"><ele>740.6666666666667</ele><time>2026-03-31T13:22:47Z</time></trkpt><trkpt lat="42.82776484573611" lon="-0.9481900823892704"><ele>736.3333333333334</ele><time>2026-03-31T13:22:48Z</time></trkpt><trkpt lat="42.82795950131134" lon="-0.9482759285473015"><ele>732.0</ele><time>2026-03-31T13:22:49Z</time></trkpt><trkpt lat="42.82814963100678" lon="-0.9483579063563945"><ele>743.6666666666666</ele><time>2026-03-31T13:22:50Z</time></trkpt><trkpt lat="42.828331168118105" lon="-0.948438469783334"><ele>755.3333333333333</ele><time>2026-03-31T13:22:51Z</time></trkpt><trkpt lat="42.82850456674736" lon="-0.948540178371036"><ele>767.0</ele><time>2026-03-31T13:22:52Z</time></trkpt><trkpt lat="42.82868176425875" lon="-0.9485821685034967"><ele>767.0</ele><time>2026-03-31T13:22:53Z</time></trkpt><trkpt lat="42.82884666175584" lon="-0.9485899300920332"><ele>767.0</ele><time>2026-03-31T13:22:54Z</time></trkpt><trkpt lat="42.82900235140867" lon="-0.9485834043855361"><ele>767.0</ele><time>2026-03-31T13:22:55Z</time></trkpt><trkpt lat="42.829137316160896" lon="-0.9485630413977205"><ele>767.0</ele><time>2026-03-31T13:22:56Z</time></trkpt><trkpt lat="42.82924570228875" lon="-0.9485236165999756"><ele>767.0</ele><time>2026-03-31T13:22:57Z</time></trkpt><trkpt lat="42.829332789424164" lon="-0.9484624096586131"><ele>767.0</ele><time>2026-03-31T13:22:58Z</time></trkpt><trkpt lat="42.82939973883976" lon="-0.9483939648318883"><ele>767.0</ele><time>2026-03-31T13:22:59Z</time></trkpt><trkpt lat="42.82944759345964" lon="-0.9483250553085502"><ele>767.0</ele><time>2026-03-31T13:23:00Z</time></trkpt><trkpt lat="42.829514741308664" lon="-0.9482369796328569"><ele>762.0</ele><time>2026-03-31T13:23:02Z</time></trkpt><trkpt lat="42.829580957783335" lon="-0.9482233974474829"><ele>757.0</ele><time>2026-03-31T13:23:05Z</time></trkpt><trkpt lat="42.82952898176589" lon="-0.9481274307894971"><ele>752.0</ele><time>2026-03-31T13:26:40Z</time></trkpt><trkpt lat="42.82958998203483" lon="-0.9480936864122053"><ele>747.0</ele><time>2026-03-31T13:27:02Z</time></trkpt><trkpt lat="42.82963493438228" lon="-0.9481559911835128"><ele>742.0</ele><time>2026-03-31T13:27:12Z</time></trkpt><trkpt lat="42.829568487564714" lon="-0.9481926753658433"><ele>737.0</ele><time>2026-03-31T13:27:23Z</time></trkpt><trkpt lat="42.82957752412446" lon="-0.9482977660388447"><ele>732.0</ele><time>2026-03-31T13:28:09Z</time></trkpt><trkpt lat="42.829640219229184" lon="-0.9483140253165099"><ele>732.0</ele><time>2026-03-31T13:28:33Z</time></trkpt><trkpt lat="42.829742816263646" lon="-0.948401439102991"><ele>732.0</ele><time>2026-03-31T13:28:42Z</time></trkpt><trkpt lat="42.82968137219711" lon="-0.948312661077589"><ele>732.0</ele><time>2026-03-31T13:29:00Z</time></trkpt><trkpt lat="42.82961339681138" lon="-0.948314872280843"><ele>732.0</ele><time>2026-03-31T13:29:14Z</time></trkpt><trkpt lat="42.829444660921766" lon="-0.948214981504129"><ele>732.0</ele><time>2026-03-31T13:29:22Z</time></trkpt><trkpt lat="42.82952949985737" lon="-0.9482118570182078"><ele>732.0</ele><time>2026-03-31T13:30:13Z</time></trkpt><trkpt lat="42.82958687156106" lon="-0.9482569929056494"><ele>732.0</ele><time>2026-03-31T13:30:32Z</time></trkpt><trkpt lat="42.829518128139455" lon="-0.9482557526054838"><ele>732.0</ele><time>2026-03-31T13:30:43Z</time></trkpt><trkpt lat="42.82946097468582" lon="-0.9483051474887657"><ele>732.0</ele><time>2026-03-31T13:31:01Z</time></trkpt><trkpt lat="42.829549053015306" lon="-0.9481853593493618"><ele>732.0</ele><time>2026-03-31T13:32:45Z</time></trkpt><trkpt lat="42.82961201448443" lon="-0.9481919519086448"><ele>732.0</ele><time>2026-03-31T13:36:31Z</time></trkpt><trkpt lat="42.829549774511605" lon="-0.9481359088642938"><ele>732.0</ele><time>2026-03-31T13:39:10Z</time></trkpt><trkpt lat="42.82960732537366" lon="-0.9480730299310006"><ele>732.0</ele><time>2026-03-31T13:39:28Z</time></trkpt><trkpt lat="42.829659122871796" lon="-0.9480134449518123"><ele>732.0</ele><time>2026-03-31T13:39:47Z</time></trkpt><trkpt lat="42.8296084108038" lon="-0.9479599278490969"><ele>732.0</ele><time>2026-03-31T13:40:49Z</time></trkpt><trkpt lat="42.82958145849808" lon="-0.9480954910824836"><ele>732.0</ele><time>2026-03-31T13:41:04Z</time></trkpt><trkpt lat="42.82966878959712" lon="-0.9483470238320696"><ele>732.0</ele><time>2026-03-31T13:42:10Z</time></trkpt><trkpt lat="42.82960379732078" lon="-0.9483073548241834"><ele>732.0</ele><time>2026-03-31T13:42:24Z</time></trkpt><trkpt lat="42.82959612855763" lon="-0.9483925911210125"><ele>732.0</ele><time>2026-03-31T13:42:49Z</time></trkpt><trkpt lat="42.829528170451006" lon="-0.9483661803492001"><ele>732.0</ele><time>2026-03-31T13:42:56Z</time></trkpt><trkpt lat="42.8294991390506" lon="-0.9482846853401735"><ele>732.0</ele><time>2026-03-31T13:43:05Z</time></trkpt><trkpt lat="42.82949764679923" lon="-0.9481961261768319"><ele>732.0</ele><time>2026-03-31T13:43:16Z</time></trkpt><trkpt lat="42.82955719656296" lon="-0.9481265929453835"><ele>732.0</ele><time>2026-03-31T13:44:25Z</time></trkpt><trkpt lat="42.829621894724454" lon="-0.9481233662020898"><ele>732.0</ele><time>2026-03-31T13:44:26Z</time></trkpt><trkpt lat="42.82976748390955" lon="-0.9481623920072941"><ele>732.0</ele><time>2026-03-31T13:44:28Z</time></trkpt><trkpt lat="42.82985365092171" lon="-0.9481762903034158"><ele>732.0</ele><time>2026-03-31T13:44:29Z</time></trkpt><trkpt lat="42.829948012375645" lon="-0.948155103290523"><ele>732.0</ele><time>2026-03-31T13:44:30Z</time></trkpt><trkpt lat="42.83004194705715" lon="-0.9481218224160165"><ele>732.0</ele><time>2026-03-31T13:44:31Z</time></trkpt><trkpt lat="42.83015009314065" lon="-0.9480651343144088"><ele>737.5</ele><time>2026-03-31T13:44:32Z</time></trkpt><trkpt lat="42.830278123077896" lon="-0.9479787537821218"><ele>743.0</ele><time>2026-03-31T13:44:33Z</time></trkpt><trkpt lat="42.830410295430376" lon="-0.9478788111054592"><ele>748.5</ele><time>2026-03-31T13:44:34Z</time></trkpt><trkpt lat="42.83052870033194" lon="-0.9477869826386167"><ele>754.0</ele><time>2026-03-31T13:44:35Z</time></trkpt><trkpt lat="42.830625817099886" lon="-0.9477135973062478"><ele>754.0</ele><time>2026-03-31T13:44:36Z</time></trkpt><trkpt lat="42.8306947073074" lon="-0.9476542624450075"><ele>754.0</ele><time>2026-03-31T13:44:37Z</time></trkpt><trkpt lat="42.83075500601664" lon="-0.9476024140441903"><ele>754.0</ele><time>2026-03-31T13:44:38Z</time></trkpt><trkpt lat="42.830829226161576" lon="-0.9475543819337903"><ele>754.0</ele><time>2026-03-31T13:44:40Z</time></trkpt><trkpt lat="42.83089731133914" lon="-0.9475354606820228"><ele>754.0</ele><time>2026-03-31T13:44:49Z</time></trkpt><trkpt lat="42.831003667126026" lon="-0.9474792156118513"><ele>754.0</ele><time>2026-03-31T13:44:50Z</time></trkpt><trkpt lat="42.83109989713208" lon="-0.9474082488095757"><ele>751.0</ele><time>2026-03-31T13:44:51Z</time></trkpt><trkpt lat="42.83121004947487" lon="-0.947309176419717"><ele>748.0</ele><time>2026-03-31T13:44:52Z</time></trkpt><trkpt lat="42.83130643279618" lon="-0.9471999086230007"><ele>745.0</ele><time>2026-03-31T13:44:53Z</time></trkpt><trkpt lat="42.831389873743866" lon="-0.9470588458010629"><ele>742.0</ele><time>2026-03-31T13:44:54Z</time></trkpt><trkpt lat="42.83147108347201" lon="-0.9468951640754619"><ele>739.3333333333334</ele><time>2026-03-31T13:44:55Z</time></trkpt><trkpt lat="42.831562301561995" lon="-0.9466833403035626"><ele>736.6666666666666</ele><time>2026-03-31T13:44:56Z</time></trkpt><trkpt lat="42.83166833769921" lon="-0.9464481709716535"><ele>734.0</ele><time>2026-03-31T13:44:57Z</time></trkpt><trkpt lat="42.831771706993585" lon="-0.9462321597059213"><ele>747.0</ele><time>2026-03-31T13:44:58Z</time></trkpt><trkpt lat="42.83187813625012" lon="-0.9460208933622535"><ele>760.0</ele><time>2026-03-31T13:44:59Z</time></trkpt><trkpt lat="42.831986124795186" lon="-0.9458120022317831"><ele>773.0</ele><time>2026-03-31T13:45:00Z</time></trkpt><trkpt lat="42.83209578501855" lon="-0.9455993401996291"><ele>773.0</ele><time>2026-03-31T13:45:01Z</time></trkpt><trkpt lat="42.832206931218" lon="-0.9453802289286087"><ele>773.0</ele><time>2026-03-31T13:45:02Z</time></trkpt><trkpt lat="42.832312351383685" lon="-0.945163102385106"><ele>773.0</ele><time>2026-03-31T13:45:03Z</time></trkpt><trkpt lat="42.83240764089058" lon="-0.9449370104787845"><ele>763.3333333333334</ele><time>2026-03-31T13:45:04Z</time></trkpt><trkpt lat="42.83249623229985" lon="-0.9447037958171249"><ele>753.6666666666667</ele><time>2026-03-31T13:45:05Z</time></trkpt><trkpt lat="42.83258847500162" lon="-0.9444689265997399"><ele>744.0</ele><time>2026-03-31T13:45:06Z</time></trkpt><trkpt lat="42.83268482283679" lon="-0.9442434055228089"><ele>754.6666666666667</ele><time>2026-03-31T13:45:07Z</time></trkpt><trkpt lat="42.8327922970247" lon="-0.9440254311305628"><ele>765.3333333333334</ele><time>2026-03-31T13:45:08Z</time></trkpt><trkpt lat="42.83292018615179" lon="-0.9438235861592539"><ele>776.0</ele><time>2026-03-31T13:45:09Z</time></trkpt><trkpt lat="42.83307541434931" lon="-0.9436409873417541"><ele>776.0</ele><time>2026-03-31T13:45:10Z</time></trkpt><trkpt lat="42.83325500413931" lon="-0.9434657265787852"><ele>776.0</ele><time>2026-03-31T13:45:11Z</time></trkpt><trkpt lat="42.83345917638536" lon="-0.9432958100496213"><ele>770.5</ele><time>2026-03-31T13:45:12Z</time></trkpt><trkpt lat="42.83367457823509" lon="-0.9431399494054169"><ele>765.0</ele><time>2026-03-31T13:45:13Z</time></trkpt><trkpt lat="42.83389027694235" lon="-0.9430070909385204"><ele>765.0</ele><time>2026-03-31T13:45:14Z</time></trkpt><trkpt lat="42.83410897515798" lon="-0.9428863286772028"><ele>765.0</ele><time>2026-03-31T13:45:15Z</time></trkpt><trkpt lat="42.834315873864895" lon="-0.9427636449498951"><ele>757.0</ele><time>2026-03-31T13:45:16Z</time></trkpt><trkpt lat="42.834524866018775" lon="-0.9426273984614763"><ele>749.0</ele><time>2026-03-31T13:45:17Z</time></trkpt><trkpt lat="42.83473295979231" lon="-0.9424792761995769"><ele>749.0</ele><time>2026-03-31T13:45:18Z</time></trkpt><trkpt lat="42.83493106368166" lon="-0.9423052406708193"><ele>749.0</ele><time>2026-03-31T13:45:19Z</time></trkpt><trkpt lat="42.83510911951706" lon="-0.9421004889658355"><ele>753.0</ele><time>2026-03-31T13:45:20Z</time></trkpt><trkpt lat="42.83527490363556" lon="-0.9418717190371476"><ele>757.0</ele><time>2026-03-31T13:45:21Z</time></trkpt><trkpt lat="42.83543339416382" lon="-0.9416362725341704"><ele>757.0</ele><time>2026-03-31T13:45:22Z</time></trkpt><trkpt lat="42.835583922704224" lon="-0.9414324666002301"><ele>757.0</ele><time>2026-03-31T13:45:23Z</time></trkpt><trkpt lat="42.83571110003783" lon="-0.9412112269905304"><ele>757.0</ele><time>2026-03-31T13:45:24Z</time></trkpt><trkpt lat="42.83580150076788" lon="-0.940968195010495"><ele>752.6666666666667</ele><time>2026-03-31T13:45:25Z</time></trkpt><trkpt lat="42.835882169244194" lon="-0.9406889769177539"><ele>748.3333333333334</ele><time>2026-03-31T13:45:26Z</time></trkpt><trkpt lat="42.8359579451291" lon="-0.9404269697359127"><ele>744.0</ele><time>2026-03-31T13:45:27Z</time></trkpt><trkpt lat="42.836042734392485" lon="-0.94018493616861"><ele>749.0</ele><time>2026-03-31T13:45:28Z</time></trkpt><trkpt lat="42.8361427981723" lon="-0.9399624894634757"><ele>754.0</ele><time>2026-03-31T13:45:29Z</time></trkpt><trkpt lat="42.836278312128016" lon="-0.9397817211160472"><ele>759.0</ele><time>2026-03-31T13:45:30Z</time></trkpt><trkpt lat="42.836440776303355" lon="-0.9396443055967323"><ele>759.0</ele><time>2026-03-31T13:45:31Z</time></trkpt><trkpt lat="42.83662133508229" lon="-0.939552788448451"><ele>759.0</ele><time>2026-03-31T13:45:32Z</time></trkpt><trkpt lat="42.83682436546922" lon="-0.939482693347473"><ele>759.0</ele><time>2026-03-31T13:45:33Z</time></trkpt><trkpt lat="42.837039509039236" lon="-0.9394232988835208"><ele>766.3333333333333</ele><time>2026-03-31T13:45:34Z</time></trkpt><trkpt lat="42.83726021644436" lon="-0.9393770303449731"><ele>773.6666666666666</ele><time>2026-03-31T13:45:35Z</time></trkpt><trkpt lat="42.83748253187931" lon="-0.9393458581546242"><ele>781.0</ele><time>2026-03-31T13:45:36Z</time></trkpt><trkpt lat="42.83770211394358" lon="-0.9393301196780783"><ele>788.0</ele><time>2026-03-31T13:45:37Z</time></trkpt><trkpt lat="42.83793978072764" lon="-0.9393282662293582"><ele>795.0</ele><time>2026-03-31T13:45:38Z</time></trkpt><trkpt lat="42.838147812725204" lon="-0.9393214000006435"><ele>802.0</ele><time>2026-03-31T13:45:39Z</time></trkpt><trkpt lat="42.83833872455958" lon="-0.9393073778495609"><ele>795.3333333333333</ele><time>2026-03-31T13:45:40Z</time></trkpt><trkpt lat="42.838516979960595" lon="-0.9392737577944854"><ele>788.6666666666667</ele><time>2026-03-31T13:45:41Z</time></trkpt><trkpt lat="42.83867568550144" lon="-0.939202239645024"><ele>782.0</ele><time>2026-03-31T13:45:42Z</time></trkpt><trkpt lat="42.83881487906598" lon="-0.9390903187774354"><ele>782.0</ele><time>2026-03-31T13:45:43Z</time></trkpt><trkpt lat="42.83894541804272" lon="-0.9389327926350992"><ele>782.0</ele><time>2026-03-31T13:45:44Z</time></trkpt><trkpt lat="42.839054448333904" lon="-0.9387415981449044"><ele>782.0</ele><time>2026-03-31T13:45:45Z</time></trkpt><trkpt lat="42.839145916966125" lon="-0.9385248416278058"><ele>788.0</ele><time>2026-03-31T13:45:46Z</time></trkpt><trkpt lat="42.839229700648964" lon="-0.9382856879046285"><ele>794.0</ele><time>2026-03-31T13:45:47Z</time></trkpt><trkpt lat="42.839293119453764" lon="-0.9380444152470373"><ele>800.0</ele><time>2026-03-31T13:45:48Z</time></trkpt><trkpt lat="42.839337077163506" lon="-0.9377976429434133"><ele>791.6666666666667</ele><time>2026-03-31T13:45:49Z</time></trkpt><trkpt lat="42.839358177914015" lon="-0.9375453587391089"><ele>783.3333333333333</ele><time>2026-03-31T13:45:50Z</time></trkpt><trkpt lat="42.839372189921264" lon="-0.9373253131894635"><ele>775.0</ele><time>2026-03-31T13:45:51Z</time></trkpt><trkpt lat="42.839393710315484" lon="-0.9371386112090878"><ele>775.0</ele><time>2026-03-31T13:45:52Z</time></trkpt><trkpt lat="42.839435296081135" lon="-0.9369836640273053"><ele>775.0</ele><time>2026-03-31T13:45:53Z</time></trkpt><trkpt lat="42.839509974843544" lon="-0.9368684783081155"><ele>775.0</ele><time>2026-03-31T13:45:54Z</time></trkpt><trkpt lat="42.8396140145586" lon="-0.9367993467958796"><ele>775.0</ele><time>2026-03-31T13:45:55Z</time></trkpt><trkpt lat="42.8397347277614" lon="-0.9367928158093988"><ele>775.0</ele><time>2026-03-31T13:45:56Z</time></trkpt><trkpt lat="42.83987739611721" lon="-0.9368242272133611"><ele>775.0</ele><time>2026-03-31T13:45:57Z</time></trkpt><trkpt lat="42.8400256713094" lon="-0.9368671456028318"><ele>775.0</ele><time>2026-03-31T13:45:58Z</time></trkpt><trkpt lat="42.84018281187957" lon="-0.9369257141284156"><ele>775.0</ele><time>2026-03-31T13:45:59Z</time></trkpt><trkpt lat="42.84037635960104" lon="-0.9369980854797103"><ele>775.0</ele><time>2026-03-31T13:46:00Z</time></trkpt><trkpt lat="42.84057657758549" lon="-0.9370682333041708"><ele>775.0</ele><time>2026-03-31T13:46:01Z</time></trkpt><trkpt lat="42.84078798820461" lon="-0.9371252875928496"><ele>776.3333333333333</ele><time>2026-03-31T13:46:02Z</time></trkpt><trkpt lat="42.84100768731115" lon="-0.9371444162848394"><ele>777.6666666666667</ele><time>2026-03-31T13:46:03Z</time></trkpt><trkpt lat="42.841225737288006" lon="-0.9371348286995352"><ele>779.0</ele><time>2026-03-31T13:46:04Z</time></trkpt><trkpt lat="42.84144390455303" lon="-0.9371261915006581"><ele>779.0</ele><time>2026-03-31T13:46:05Z</time></trkpt><trkpt lat="42.84166256588793" lon="-0.937119991139243"><ele>779.0</ele><time>2026-03-31T13:46:06Z</time></trkpt><trkpt lat="42.841883922996836" lon="-0.9371077196140278"><ele>779.0</ele><time>2026-03-31T13:46:07Z</time></trkpt><trkpt lat="42.84210465648834" lon="-0.937097461641116"><ele>781.0</ele><time>2026-03-31T13:46:08Z</time></trkpt><trkpt lat="42.842325339130966" lon="-0.9370823243073106"><ele>783.0</ele><time>2026-03-31T13:46:09Z</time></trkpt><trkpt lat="42.84255126978129" lon="-0.9370479985307207"><ele>785.0</ele><time>2026-03-31T13:46:10Z</time></trkpt><trkpt lat="42.84276755601702" lon="-0.9369602411241433"><ele>791.0</ele><time>2026-03-31T13:46:11Z</time></trkpt><trkpt lat="42.842994993010684" lon="-0.9368997580694074"><ele>797.0</ele><time>2026-03-31T13:46:12Z</time></trkpt><trkpt lat="42.8432264569195" lon="-0.9368082229356218"><ele>780.0</ele><time>2026-03-31T13:46:13Z</time></trkpt><trkpt lat="42.843464467948706" lon="-0.9367192285247474"><ele>763.0</ele><time>2026-03-31T13:46:14Z</time></trkpt><trkpt lat="42.84370067301133" lon="-0.9366209128793979"><ele>763.0</ele><time>2026-03-31T13:46:15Z</time></trkpt><trkpt lat="42.843931542575554" lon="-0.9365115970308553"><ele>763.0</ele><time>2026-03-31T13:46:16Z</time></trkpt><trkpt lat="42.844161465586225" lon="-0.9363978238806976"><ele>776.0</ele><time>2026-03-31T13:46:17Z</time></trkpt><trkpt lat="42.84439024130238" lon="-0.9362710380603622"><ele>789.0</ele><time>2026-03-31T13:46:18Z</time></trkpt><trkpt lat="42.84461053369563" lon="-0.9361463488572735"><ele>789.0</ele><time>2026-03-31T13:46:19Z</time></trkpt><trkpt lat="42.84483020949542" lon="-0.9360194930523617"><ele>789.0</ele><time>2026-03-31T13:46:20Z</time></trkpt><trkpt lat="42.845032457912836" lon="-0.9358665600220432"><ele>795.3333333333333</ele><time>2026-03-31T13:46:21Z</time></trkpt><trkpt lat="42.84521499205488" lon="-0.9356895791128669"><ele>801.6666666666666</ele><time>2026-03-31T13:46:22Z</time></trkpt><trkpt lat="42.84538308428396" lon="-0.9355121798648156"><ele>808.0</ele><time>2026-03-31T13:46:23Z</time></trkpt><trkpt lat="42.8455324018949" lon="-0.935351527518205"><ele>808.0</ele><time>2026-03-31T13:46:24Z</time></trkpt><trkpt lat="42.84566324022626" lon="-0.9352084769961575"><ele>808.0</ele><time>2026-03-31T13:46:25Z</time></trkpt><trkpt lat="42.84577345207825" lon="-0.9350548587075852"><ele>808.0</ele><time>2026-03-31T13:46:26Z</time></trkpt><trkpt lat="42.84585726358597" lon="-0.9348658691418559"><ele>802.6666666666666</ele><time>2026-03-31T13:46:27Z</time></trkpt><trkpt lat="42.8459315742977" lon="-0.9346206401280134"><ele>797.3333333333333</ele><time>2026-03-31T13:46:28Z</time></trkpt><trkpt lat="42.845984139707944" lon="-0.9343542963062578"><ele>792.0</ele><time>2026-03-31T13:46:29Z</time></trkpt><trkpt lat="42.84602729238039" lon="-0.9340756615347098"><ele>792.0</ele><time>2026-03-31T13:46:30Z</time></trkpt><trkpt lat="42.84611915404052" lon="-0.9338360532886357"><ele>792.0</ele><time>2026-03-31T13:46:31Z</time></trkpt><trkpt lat="42.84620723296527" lon="-0.9336354493680985"><ele>792.0</ele><time>2026-03-31T13:46:32Z</time></trkpt><trkpt lat="42.84629549546563" lon="-0.9334623137632795"><ele>783.3333333333334</ele><time>2026-03-31T13:46:33Z</time></trkpt><trkpt lat="42.846413818948214" lon="-0.9333268813717643"><ele>774.6666666666667</ele><time>2026-03-31T13:46:34Z</time></trkpt><trkpt lat="42.846582714963056" lon="-0.9332456239936128"><ele>766.0</ele><time>2026-03-31T13:46:35Z</time></trkpt><trkpt lat="42.846780672554594" lon="-0.9331959580059063"><ele>775.3333333333334</ele><time>2026-03-31T13:46:36Z</time></trkpt><trkpt lat="42.84698626169119" lon="-0.9331253957298775"><ele>784.6666666666667</ele><time>2026-03-31T13:46:37Z</time></trkpt><trkpt lat="42.84720639112989" lon="-0.9330196607831461"><ele>794.0</ele><time>2026-03-31T13:46:38Z</time></trkpt><trkpt lat="42.847425673690424" lon="-0.9328690122854216"><ele>787.0</ele><time>2026-03-31T13:46:39Z</time></trkpt><trkpt lat="42.847628865554306" lon="-0.9326943181138974"><ele>780.0</ele><time>2026-03-31T13:46:40Z</time></trkpt><trkpt lat="42.84783305181503" lon="-0.9325092803515979"><ele>780.0</ele><time>2026-03-31T13:46:41Z</time></trkpt><trkpt lat="42.84803318103076" lon="-0.9323375302389224"><ele>780.0</ele><time>2026-03-31T13:46:42Z</time></trkpt><trkpt lat="42.848228499471645" lon="-0.9321933857469609"><ele>780.0</ele><time>2026-03-31T13:46:43Z</time></trkpt><trkpt lat="42.84842628478528" lon="-0.9320771818267702"><ele>780.0</ele><time>2026-03-31T13:46:44Z</time></trkpt><trkpt lat="42.84862879845889" lon="-0.9320148059437467"><ele>780.0</ele><time>2026-03-31T13:46:45Z</time></trkpt><trkpt lat="42.8488363872859" lon="-0.9320022215045033"><ele>779.3333333333333</ele><time>2026-03-31T13:46:46Z</time></trkpt><trkpt lat="42.849046881454576" lon="-0.9320106945824539"><ele>778.6666666666666</ele><time>2026-03-31T13:46:47Z</time></trkpt><trkpt lat="42.849253588064926" lon="-0.9320315829027607"><ele>778.0</ele><time>2026-03-31T13:46:48Z</time></trkpt><trkpt lat="42.849453515798615" lon="-0.9320696713840243"><ele>774.0</ele><time>2026-03-31T13:46:49Z</time></trkpt><trkpt lat="42.849642951570054" lon="-0.9321437915726625"><ele>770.0</ele><time>2026-03-31T13:46:50Z</time></trkpt><trkpt lat="42.84981754573082" lon="-0.932267110506437"><ele>766.0</ele><time>2026-03-31T13:46:51Z</time></trkpt><trkpt lat="42.849973013046736" lon="-0.9324056304163785"><ele>769.0</ele><time>2026-03-31T13:46:52Z</time></trkpt><trkpt lat="42.85013190891528" lon="-0.932497501859017"><ele>772.0</ele><time>2026-03-31T13:46:53Z</time></trkpt><trkpt lat="42.850305124547596" lon="-0.9325148707511686"><ele>775.0</ele><time>2026-03-31T13:46:54Z</time></trkpt><trkpt lat="42.85048308598053" lon="-0.9324617535888706"><ele>775.0</ele><time>2026-03-31T13:46:55Z</time></trkpt><trkpt lat="42.85063390944445" lon="-0.9323099187518615"><ele>775.0</ele><time>2026-03-31T13:46:56Z</time></trkpt><trkpt lat="42.850806605079505" lon="-0.9321651801809969"><ele>775.0</ele><time>2026-03-31T13:46:57Z</time></trkpt><trkpt lat="42.85099699053409" lon="-0.9320027907562304"><ele>772.3333333333333</ele><time>2026-03-31T13:46:58Z</time></trkpt><trkpt lat="42.851167884692096" lon="-0.9318610556223393"><ele>769.6666666666666</ele><time>2026-03-31T13:46:59Z</time></trkpt><trkpt lat="42.851315221892385" lon="-0.931727413064138"><ele>767.0</ele><time>2026-03-31T13:47:00Z</time></trkpt><trkpt lat="42.8514669396854" lon="-0.931617383884505"><ele>767.0</ele><time>2026-03-31T13:47:01Z</time></trkpt><trkpt lat="42.851642360968704" lon="-0.931542702840817"><ele>767.0</ele><time>2026-03-31T13:47:02Z</time></trkpt><trkpt lat="42.85184094528811" lon="-0.9315182643189404"><ele>767.0</ele><time>2026-03-31T13:47:03Z</time></trkpt><trkpt lat="42.852058487019875" lon="-0.9315438310382151"><ele>768.0</ele><time>2026-03-31T13:47:04Z</time></trkpt><trkpt lat="42.85229012754489" lon="-0.9316037222929482"><ele>769.0</ele><time>2026-03-31T13:47:05Z</time></trkpt><trkpt lat="42.85251457109194" lon="-0.93168100418492"><ele>779.0</ele><time>2026-03-31T13:47:06Z</time></trkpt><trkpt lat="42.852735806720474" lon="-0.9317632425665843"><ele>789.0</ele><time>2026-03-31T13:47:07Z</time></trkpt><trkpt lat="42.8529470016753" lon="-0.9318617605173384"><ele>789.0</ele><time>2026-03-31T13:47:08Z</time></trkpt><trkpt lat="42.85314766792781" lon="-0.9319735382528337"><ele>789.0</ele><time>2026-03-31T13:47:09Z</time></trkpt><trkpt lat="42.85334713389238" lon="-0.9320663333458505"><ele>789.0</ele><time>2026-03-31T13:47:10Z</time></trkpt><trkpt lat="42.85354489553525" lon="-0.932141836806491"><ele>788.0</ele><time>2026-03-31T13:47:11Z</time></trkpt><trkpt lat="42.85373234998587" lon="-0.9321616137867995"><ele>787.0</ele><time>2026-03-31T13:47:12Z</time></trkpt><trkpt lat="42.85389350175998" lon="-0.9321699427154281"><ele>786.0</ele><time>2026-03-31T13:47:13Z</time></trkpt><trkpt lat="42.854043157180314" lon="-0.9321629750132646"><ele>786.0</ele><time>2026-03-31T13:47:14Z</time></trkpt><trkpt lat="42.8541774641284" lon="-0.9320729960845312"><ele>786.0</ele><time>2026-03-31T13:47:15Z</time></trkpt><trkpt lat="42.85431400674466" lon="-0.931966225890534"><ele>786.0</ele><time>2026-03-31T13:47:16Z</time></trkpt><trkpt lat="42.854457149129956" lon="-0.9318142599208319"><ele>787.0</ele><time>2026-03-31T13:47:17Z</time></trkpt><trkpt lat="42.85458324194994" lon="-0.9316080819378345"><ele>788.0</ele><time>2026-03-31T13:47:18Z</time></trkpt><trkpt lat="42.85472111213091" lon="-0.9313873066237116"><ele>789.0</ele><time>2026-03-31T13:47:19Z</time></trkpt><trkpt lat="42.85487950916831" lon="-0.9312144826671077"><ele>789.0</ele><time>2026-03-31T13:47:20Z</time></trkpt><trkpt lat="42.855038666910296" lon="-0.9310427600773392"><ele>789.0</ele><time>2026-03-31T13:47:21Z</time></trkpt><trkpt lat="42.85514267202695" lon="-0.9308147581073617"><ele>789.0</ele><time>2026-03-31T13:47:22Z</time></trkpt><trkpt lat="42.85522793832411" lon="-0.9305528654125427"><ele>790.0</ele><time>2026-03-31T13:47:23Z</time></trkpt><trkpt lat="42.85534546577538" lon="-0.9302880373507126"><ele>791.0</ele><time>2026-03-31T13:47:24Z</time></trkpt><trkpt lat="42.855474907754385" lon="-0.9300145035893341"><ele>791.0</ele><time>2026-03-31T13:47:25Z</time></trkpt><trkpt lat="42.85562538165003" lon="-0.9297940225098157"><ele>791.0</ele><time>2026-03-31T13:47:26Z</time></trkpt><trkpt lat="42.85579412636446" lon="-0.9296285075319564"><ele>791.0</ele><time>2026-03-31T13:47:27Z</time></trkpt><trkpt lat="42.85598483552048" lon="-0.9294982956281251"><ele>789.3333333333334</ele><time>2026-03-31T13:47:28Z</time></trkpt><trkpt lat="42.856186557384" lon="-0.9293916580087258"><ele>787.6666666666667</ele><time>2026-03-31T13:47:29Z</time></trkpt><trkpt lat="42.856388035670946" lon="-0.929264626590171"><ele>786.0</ele><time>2026-03-31T13:47:30Z</time></trkpt><trkpt lat="42.85655172935281" lon="-0.9290588388170816"><ele>786.0</ele><time>2026-03-31T13:47:31Z</time></trkpt><trkpt lat="42.85671075175724" lon="-0.928852603070427"><ele>786.0</ele><time>2026-03-31T13:47:32Z</time></trkpt><trkpt lat="42.85687872377993" lon="-0.928669988792201"><ele>786.0</ele><time>2026-03-31T13:47:33Z</time></trkpt><trkpt lat="42.85705947229782" lon="-0.9285119167903177"><ele>781.5</ele><time>2026-03-31T13:47:34Z</time></trkpt><trkpt lat="42.85727210436605" lon="-0.9283839203511616"><ele>777.0</ele><time>2026-03-31T13:47:35Z</time></trkpt><trkpt lat="42.85750017198947" lon="-0.9282710738809585"><ele>785.5</ele><time>2026-03-31T13:47:36Z</time></trkpt><trkpt lat="42.85773441456915" lon="-0.9281660000656405"><ele>794.0</ele><time>2026-03-31T13:47:37Z</time></trkpt><trkpt lat="42.85795335116814" lon="-0.9280639058969281"><ele>794.0</ele><time>2026-03-31T13:47:38Z</time></trkpt><trkpt lat="42.85816533061829" lon="-0.9279579495321015"><ele>794.0</ele><time>2026-03-31T13:47:39Z</time></trkpt><trkpt lat="42.858374241729045" lon="-0.9278477620644603"><ele>796.0</ele><time>2026-03-31T13:47:40Z</time></trkpt><trkpt lat="42.85857138748604" lon="-0.927745623358328"><ele>798.0</ele><time>2026-03-31T13:47:41Z</time></trkpt><trkpt lat="42.8587596602171" lon="-0.927647247047361"><ele>800.0</ele><time>2026-03-31T13:47:42Z</time></trkpt><trkpt lat="42.85893107017396" lon="-0.9275489533562021"><ele>791.6666666666667</ele><time>2026-03-31T13:47:43Z</time></trkpt><trkpt lat="42.859090585520086" lon="-0.9274288437664682"><ele>783.3333333333333</ele><time>2026-03-31T13:47:44Z</time></trkpt><trkpt lat="42.859239740836806" lon="-0.9272751161349136"><ele>775.0</ele><time>2026-03-31T13:47:45Z</time></trkpt><trkpt lat="42.859399470431825" lon="-0.9270850750259259"><ele>774.6666666666666</ele><time>2026-03-31T13:47:46Z</time></trkpt><trkpt lat="42.85955984518053" lon="-0.9268795058294315"><ele>774.3333333333333</ele><time>2026-03-31T13:47:47Z</time></trkpt><trkpt lat="42.8596951826352" lon="-0.9266669550271224"><ele>774.0</ele><time>2026-03-31T13:47:48Z</time></trkpt><trkpt lat="42.85980318144013" lon="-0.9264514997878643"><ele>776.0</ele><time>2026-03-31T13:47:49Z</time></trkpt><trkpt lat="42.859891959340295" lon="-0.9262453211536228"><ele>778.0</ele><time>2026-03-31T13:47:50Z</time></trkpt><trkpt lat="42.859974509278324" lon="-0.9260507328976283"><ele>780.0</ele><time>2026-03-31T13:47:51Z</time></trkpt><trkpt lat="42.859634154432705" lon="-0.9255507940303139"><ele>781.25</ele><time>2026-03-31T13:47:52Z</time></trkpt><trkpt lat="42.8596989863835" lon="-0.9253938189652953"><ele>782.5</ele><time>2026-03-31T13:47:53Z</time></trkpt><trkpt lat="42.859756747681274" lon="-0.9252539637958227"><ele>783.75</ele><time>2026-03-31T13:47:54Z</time></trkpt><trkpt lat="42.859806696414594" lon="-0.9251330248824245"><ele>785.0</ele><time>2026-03-31T13:47:55Z</time></trkpt><trkpt lat="42.86026081075956" lon="-0.9253458406743446"><ele>788.8</ele><time>2026-03-31T13:47:56Z</time></trkpt><trkpt lat="42.860288801618466" lon="-0.9252646867448452"><ele>792.6</ele><time>2026-03-31T13:47:57Z</time></trkpt><trkpt lat="42.8603179535875" lon="-0.925140873532294"><ele>796.4000000000001</ele><time>2026-03-31T13:47:59Z</time></trkpt><trkpt lat="42.86033938648058" lon="-0.9249543471877278"><ele>800.2</ele><time>2026-03-31T13:48:01Z</time></trkpt><trkpt lat="42.86034746194888" lon="-0.9248544595516122"><ele>804.0</ele><time>2026-03-31T13:48:02Z</time></trkpt><trkpt lat="42.86035008304127" lon="-0.9247190846881024"><ele>804.0</ele><time>2026-03-31T13:48:04Z</time></trkpt><trkpt lat="42.86035256938986" lon="-0.9245733424765729"><ele>804.0</ele><time>2026-03-31T13:48:06Z</time></trkpt><trkpt lat="42.860354342999536" lon="-0.9243951169300554"><ele>804.0</ele><time>2026-03-31T13:48:08Z</time></trkpt><trkpt lat="42.860351881743476" lon="-0.9243021781895272"><ele>804.0</ele><time>2026-03-31T13:48:09Z</time></trkpt><trkpt lat="42.860354373125986" lon="-0.9242118321615704"><ele>804.0</ele><time>2026-03-31T13:48:10Z</time></trkpt><trkpt lat="42.86036711476415" lon="-0.9241208028151618"><ele>804.0</ele><time>2026-03-31T13:48:11Z</time></trkpt><trkpt lat="42.86038371213326" lon="-0.9240293017606617"><ele>804.2857142857142</ele><time>2026-03-31T13:48:12Z</time></trkpt><trkpt lat="42.860400520408746" lon="-0.9239354217947302"><ele>804.5714285714287</ele><time>2026-03-31T13:48:13Z</time></trkpt><trkpt lat="42.860419345443205" lon="-0.9238397103637205"><ele>804.8571428571429</ele><time>2026-03-31T13:48:14Z</time></trkpt><trkpt lat="42.86043908243499" lon="-0.9237438619903565"><ele>805.1428571428571</ele><time>2026-03-31T13:48:15Z</time></trkpt><trkpt lat="42.86046238580331" lon="-0.9236498501996429"><ele>805.4285714285713</ele><time>2026-03-31T13:48:16Z</time></trkpt><trkpt lat="42.86048640748228" lon="-0.9235569641609236"><ele>805.7142857142858</ele><time>2026-03-31T13:48:17Z</time></trkpt><trkpt lat="42.860515594895894" lon="-0.9234658133333338"><ele>806.0</ele><time>2026-03-31T13:48:18Z</time></trkpt><trkpt lat="42.860540714247776" lon="-0.9233766519240391"><ele>806.1666666666667</ele><time>2026-03-31T13:48:19Z</time></trkpt><trkpt lat="42.86057296220313" lon="-0.9232921273453073"><ele>806.3333333333334</ele><time>2026-03-31T13:48:20Z</time></trkpt><trkpt lat="42.860602871143016" lon="-0.9232114370649175"><ele>806.5</ele><time>2026-03-31T13:48:21Z</time></trkpt><trkpt lat="42.860675059203025" lon="-0.923083272183657"><ele>806.6666666666667</ele><time>2026-03-31T13:48:23Z</time></trkpt><trkpt lat="42.86073251780305" lon="-0.9230413450566742"><ele>806.8333333333334</ele><time>2026-03-31T13:48:24Z</time></trkpt><trkpt lat="42.86083228294643" lon="-0.9229551097893532"><ele>807.0</ele><time>2026-03-31T13:48:26Z</time></trkpt><trkpt lat="42.86089260360235" lon="-0.9228350335965646"><ele>807.0</ele><time>2026-03-31T13:48:28Z</time></trkpt><trkpt lat="42.860934387522754" lon="-0.9226985517888983"><ele>807.0</ele><time>2026-03-31T13:48:30Z</time></trkpt><trkpt lat="42.86100092052518" lon="-0.9225751933740318"><ele>807.0</ele><time>2026-03-31T13:48:32Z</time></trkpt><trkpt lat="42.86108699119484" lon="-0.9225087424114846"><ele>807.0</ele><time>2026-03-31T13:48:34Z</time></trkpt><trkpt lat="42.8611891421739" lon="-0.9225165445571727"><ele>807.0</ele><time>2026-03-31T13:48:36Z</time></trkpt><trkpt lat="42.86129563402123" lon="-0.9225446481134032"><ele>807.0</ele><time>2026-03-31T13:48:38Z</time></trkpt><trkpt lat="42.861407768201076" lon="-0.9225580087473446"><ele>807.0</ele><time>2026-03-31T13:48:40Z</time></trkpt><trkpt lat="42.861510490255256" lon="-0.9225804891577558"><ele>807.0</ele><time>2026-03-31T13:48:42Z</time></trkpt><trkpt lat="42.86158912118706" lon="-0.9225997528604747"><ele>807.0</ele><time>2026-03-31T13:48:44Z</time></trkpt><trkpt lat="42.86168902972962" lon="-0.9226223320471142"><ele>807.0</ele><time>2026-03-31T13:48:47Z</time></trkpt><trkpt lat="42.86179910192269" lon="-0.9226188081238242"><ele>807.0</ele><time>2026-03-31T13:48:49Z</time></trkpt><trkpt lat="42.861868537544574" lon="-0.9226118968301846"><ele>807.0</ele><time>2026-03-31T13:48:50Z</time></trkpt><trkpt lat="42.86193320025251" lon="-0.9225896413279379"><ele>807.0</ele><time>2026-03-31T13:48:51Z</time></trkpt><trkpt lat="42.86203906098627" lon="-0.9225134837772393"><ele>807.0</ele><time>2026-03-31T13:48:53Z</time></trkpt><trkpt lat="42.86208688274971" lon="-0.9224489616977055"><ele>807.0</ele><time>2026-03-31T13:48:54Z</time></trkpt><trkpt lat="42.862139558676894" lon="-0.922379333397257"><ele>807.0</ele><time>2026-03-31T13:48:55Z</time></trkpt><trkpt lat="42.86219822078108" lon="-0.922310780718825"><ele>805.6</ele><time>2026-03-31T13:48:56Z</time></trkpt><trkpt lat="42.862268456309494" lon="-0.9222395052976289"><ele>804.2</ele><time>2026-03-31T13:48:57Z</time></trkpt><trkpt lat="42.86234499303749" lon="-0.9221585632612653"><ele>802.8</ele><time>2026-03-31T13:48:58Z</time></trkpt><trkpt lat="42.862427211158405" lon="-0.9220754461806228"><ele>801.4</ele><time>2026-03-31T13:48:59Z</time></trkpt><trkpt lat="42.862505934549674" lon="-0.9219684652912006"><ele>800.0</ele><time>2026-03-31T13:49:00Z</time></trkpt><trkpt lat="42.86257837121146" lon="-0.9218832468642315"><ele>799.4</ele><time>2026-03-31T13:49:01Z</time></trkpt><trkpt lat="42.86268686727052" lon="-0.9218496368534536"><ele>798.8</ele><time>2026-03-31T13:49:02Z</time></trkpt><trkpt lat="42.862766229778686" lon="-0.9217868060996908"><ele>798.2</ele><time>2026-03-31T13:49:03Z</time></trkpt><trkpt lat="42.86283269762898" lon="-0.9216161498063026"><ele>797.6</ele><time>2026-03-31T13:49:04Z</time></trkpt><trkpt lat="42.86289285604498" lon="-0.9215525852057401"><ele>797.0</ele><time>2026-03-31T13:49:05Z</time></trkpt><trkpt lat="42.862952899777994" lon="-0.921514402008982"><ele>797.0</ele><time>2026-03-31T13:49:06Z</time></trkpt><trkpt lat="42.86303344715881" lon="-0.9214825781293585"><ele>797.0</ele><time>2026-03-31T13:49:07Z</time></trkpt><trkpt lat="42.863138088267924" lon="-0.9214507795317378"><ele>797.0</ele><time>2026-03-31T13:49:08Z</time></trkpt><trkpt lat="42.86325187163802" lon="-0.9214067599428045"><ele>797.0</ele><time>2026-03-31T13:49:09Z</time></trkpt><trkpt lat="42.86335859714112" lon="-0.9213492413742329"><ele>797.0</ele><time>2026-03-31T13:49:10Z</time></trkpt><trkpt lat="42.86344518481896" lon="-0.921256160452814"><ele>794.0</ele><time>2026-03-31T13:49:11Z</time></trkpt><trkpt lat="42.86350437897179" lon="-0.9211265560950028"><ele>791.0</ele><time>2026-03-31T13:49:12Z</time></trkpt><trkpt lat="42.863535262400795" lon="-0.9209769567099001"><ele>788.0</ele><time>2026-03-31T13:49:13Z</time></trkpt><trkpt lat="42.86356685143316" lon="-0.9208106797620751"><ele>785.0</ele><time>2026-03-31T13:49:14Z</time></trkpt><trkpt lat="42.863601783382116" lon="-0.9206156073839621"><ele>785.0</ele><time>2026-03-31T13:49:15Z</time></trkpt><trkpt lat="42.8636406288991" lon="-0.9204184862140391"><ele>785.0</ele><time>2026-03-31T13:49:16Z</time></trkpt><trkpt lat="42.863691648406714" lon="-0.9202188811708635"><ele>785.0</ele><time>2026-03-31T13:49:17Z</time></trkpt><trkpt lat="42.863772047509954" lon="-0.9200202489230715"><ele>788.0</ele><time>2026-03-31T13:49:18Z</time></trkpt><trkpt lat="42.8638848485511" lon="-0.9198302819115183"><ele>791.0</ele><time>2026-03-31T13:49:19Z</time></trkpt><trkpt lat="42.864027261763106" lon="-0.9196652603870733"><ele>794.0</ele><time>2026-03-31T13:49:20Z</time></trkpt><trkpt lat="42.86419297350979" lon="-0.9195167614081511"><ele>793.6666666666667</ele><time>2026-03-31T13:49:21Z</time></trkpt><trkpt lat="42.864360484180196" lon="-0.9193618988089637"><ele>793.3333333333333</ele><time>2026-03-31T13:49:22Z</time></trkpt><trkpt lat="42.8645257067335" lon="-0.919192602732679"><ele>793.0</ele><time>2026-03-31T13:49:23Z</time></trkpt><trkpt lat="42.864686636635426" lon="-0.9190200483159878"><ele>793.0</ele><time>2026-03-31T13:49:24Z</time></trkpt><trkpt lat="42.86482631243439" lon="-0.9188175141582288"><ele>793.0</ele><time>2026-03-31T13:49:25Z</time></trkpt><trkpt lat="42.864958814718285" lon="-0.918605158970936"><ele>793.0</ele><time>2026-03-31T13:49:26Z</time></trkpt><trkpt lat="42.865100510609075" lon="-0.9184061253548489"><ele>795.3333333333333</ele><time>2026-03-31T13:49:27Z</time></trkpt><trkpt lat="42.86526159217389" lon="-0.9182389511782475"><ele>797.6666666666667</ele><time>2026-03-31T13:49:28Z</time></trkpt><trkpt lat="42.86541618693301" lon="-0.9180587629308077"><ele>800.0</ele><time>2026-03-31T13:49:29Z</time></trkpt><trkpt lat="42.86557676050407" lon="-0.9178864472959993"><ele>800.0</ele><time>2026-03-31T13:49:30Z</time></trkpt><trkpt lat="42.86571758191167" lon="-0.9176825447168552"><ele>800.0</ele><time>2026-03-31T13:49:31Z</time></trkpt><trkpt lat="42.86587244710702" lon="-0.9174926637983882"><ele>800.0</ele><time>2026-03-31T13:49:32Z</time></trkpt><trkpt lat="42.86603584341639" lon="-0.9173148579705014"><ele>799.0</ele><time>2026-03-31T13:49:33Z</time></trkpt><trkpt lat="42.8662213198776" lon="-0.9171792450707579"><ele>798.0</ele><time>2026-03-31T13:49:34Z</time></trkpt><trkpt lat="42.86640872335729" lon="-0.9170484014675739"><ele>797.0</ele><time>2026-03-31T13:49:35Z</time></trkpt><trkpt lat="42.866600647545404" lon="-0.9169363887206018"><ele>797.0</ele><time>2026-03-31T13:49:36Z</time></trkpt><trkpt lat="42.8667945533857" lon="-0.91682748570601"><ele>797.0</ele><time>2026-03-31T13:49:37Z</time></trkpt><trkpt lat="42.86699114581633" lon="-0.9167140942543128"><ele>797.0</ele><time>2026-03-31T13:49:38Z</time></trkpt><trkpt lat="42.86718370375465" lon="-0.916593530065906"><ele>797.0</ele><time>2026-03-31T13:49:39Z</time></trkpt><trkpt lat="42.867370489473466" lon="-0.9164716539776225"><ele>797.0</ele><time>2026-03-31T13:49:40Z</time></trkpt><trkpt lat="42.86755398604366" lon="-0.9163530926417707"><ele>797.0</ele><time>2026-03-31T13:49:41Z</time></trkpt><trkpt lat="42.86772548191102" lon="-0.9162100399249559"><ele>798.3333333333334</ele><time>2026-03-31T13:49:42Z</time></trkpt><trkpt lat="42.867888688534364" lon="-0.9160584579122425"><ele>799.6666666666667</ele><time>2026-03-31T13:49:43Z</time></trkpt><trkpt lat="42.86802988379016" lon="-0.9158806279964977"><ele>801.0</ele><time>2026-03-31T13:49:44Z</time></trkpt><trkpt lat="42.86814492872155" lon="-0.9156733879745684"><ele>801.0</ele><time>2026-03-31T13:49:45Z</time></trkpt><trkpt lat="42.868240859080814" lon="-0.9154489800776761"><ele>801.0</ele><time>2026-03-31T13:49:46Z</time></trkpt><trkpt lat="42.86833437628464" lon="-0.9152267064313745"><ele>801.0</ele><time>2026-03-31T13:49:47Z</time></trkpt><trkpt lat="42.86842790756306" lon="-0.9150477146345644"><ele>804.5</ele><time>2026-03-31T13:49:48Z</time></trkpt><trkpt lat="42.86852277617057" lon="-0.9149060430745515"><ele>808.0</ele><time>2026-03-31T13:49:49Z</time></trkpt><trkpt lat="42.8686374385337" lon="-0.9148409640345787"><ele>811.5</ele><time>2026-03-31T13:49:50Z</time></trkpt><trkpt lat="42.868752812293074" lon="-0.9148217406993799"><ele>815.0</ele><time>2026-03-31T13:49:51Z</time></trkpt><trkpt lat="42.86886016063681" lon="-0.9148388147478134"><ele>815.0</ele><time>2026-03-31T13:49:52Z</time></trkpt><trkpt lat="42.86894061966694" lon="-0.9147646209646327"><ele>815.0</ele><time>2026-03-31T13:49:53Z</time></trkpt><trkpt lat="42.868956997726166" lon="-0.91461964044586"><ele>815.0</ele><time>2026-03-31T13:49:54Z</time></trkpt><trkpt lat="42.868960584673616" lon="-0.9144625997780896"><ele>815.0</ele><time>2026-03-31T13:49:55Z</time></trkpt><trkpt lat="42.868975714583016" lon="-0.9142530615266252"><ele>814.3333333333334</ele><time>2026-03-31T13:49:56Z</time></trkpt><trkpt lat="42.86899271207499" lon="-0.9140176582275719"><ele>813.6666666666667</ele><time>2026-03-31T13:49:57Z</time></trkpt><trkpt lat="42.86901046376143" lon="-0.9137622778728427"><ele>813.0</ele><time>2026-03-31T13:49:58Z</time></trkpt><trkpt lat="42.869025700115266" lon="-0.9135195251906091"><ele>813.0</ele><time>2026-03-31T13:49:59Z</time></trkpt><trkpt lat="42.869056298305416" lon="-0.9132604467914872"><ele>813.0</ele><time>2026-03-31T13:50:00Z</time></trkpt><trkpt lat="42.8690726118085" lon="-0.9129887013598937"><ele>813.0</ele><time>2026-03-31T13:50:01Z</time></trkpt><trkpt lat="42.86908899416888" lon="-0.912718998882649"><ele>813.6666666666667</ele><time>2026-03-31T13:50:02Z</time></trkpt><trkpt lat="42.869107307282874" lon="-0.9124451074959041"><ele>814.3333333333334</ele><time>2026-03-31T13:50:03Z</time></trkpt><trkpt lat="42.869130153035606" lon="-0.9121757498508013"><ele>815.0</ele><time>2026-03-31T13:50:04Z</time></trkpt><trkpt lat="42.86915274166177" lon="-0.911913420405951"><ele>817.0</ele><time>2026-03-31T13:50:05Z</time></trkpt><trkpt lat="42.86915745779541" lon="-0.9116595779003519"><ele>819.0</ele><time>2026-03-31T13:50:06Z</time></trkpt><trkpt lat="42.86917993453409" lon="-0.9114108844307472"><ele>821.0</ele><time>2026-03-31T13:50:07Z</time></trkpt><trkpt lat="42.8692405907827" lon="-0.9111663159016575"><ele>841.3333333333334</ele><time>2026-03-31T13:50:08Z</time></trkpt><trkpt lat="42.86930659489909" lon="-0.9109133860489836"><ele>861.6666666666667</ele><time>2026-03-31T13:50:09Z</time></trkpt><trkpt lat="42.869393213836574" lon="-0.910674047657244"><ele>882.0</ele><time>2026-03-31T13:50:10Z</time></trkpt><trkpt lat="42.86946790313673" lon="-0.9104253956004076"><ele>882.3333333333333</ele><time>2026-03-31T13:50:11Z</time></trkpt><trkpt lat="42.86954550377918" lon="-0.9101871586904818"><ele>882.6666666666666</ele><time>2026-03-31T13:50:12Z</time></trkpt><trkpt lat="42.86964046220289" lon="-0.9099636231866767"><ele>883.0</ele><time>2026-03-31T13:50:13Z</time></trkpt><trkpt lat="42.86973366514177" lon="-0.9097393908558619"><ele>871.0</ele><time>2026-03-31T13:50:14Z</time></trkpt><trkpt lat="42.869846032403416" lon="-0.9095297863863804"><ele>859.0</ele><time>2026-03-31T13:50:15Z</time></trkpt><trkpt lat="42.869971781021775" lon="-0.9093333707633311"><ele>847.0</ele><time>2026-03-31T13:50:16Z</time></trkpt><trkpt lat="42.870103106903926" lon="-0.9091259026500563"><ele>844.3333333333333</ele><time>2026-03-31T13:50:17Z</time></trkpt><trkpt lat="42.8702513748965" lon="-0.9089458060881964"><ele>841.6666666666667</ele><time>2026-03-31T13:50:18Z</time></trkpt><trkpt lat="42.87042353098298" lon="-0.9088132418469528"><ele>839.0</ele><time>2026-03-31T13:50:19Z</time></trkpt><trkpt lat="42.870580567170315" lon="-0.9086438455928526"><ele>839.0</ele><time>2026-03-31T13:50:20Z</time></trkpt><trkpt lat="42.870756865581576" lon="-0.9085452422666225"><ele>839.0</ele><time>2026-03-31T13:50:21Z</time></trkpt><trkpt lat="42.87091357486973" lon="-0.9084580347975426"><ele>839.0</ele><time>2026-03-31T13:50:22Z</time></trkpt><trkpt lat="42.871061576387405" lon="-0.9084182651546397"><ele>840.0</ele><time>2026-03-31T13:50:23Z</time></trkpt><trkpt lat="42.87118909609563" lon="-0.9083944358489566"><ele>841.0</ele><time>2026-03-31T13:50:24Z</time></trkpt><trkpt lat="42.87130507005071" lon="-0.9083868847900066"><ele>842.0</ele><time>2026-03-31T13:50:25Z</time></trkpt><trkpt lat="42.871404651846966" lon="-0.9084226134448949"><ele>843.0</ele><time>2026-03-31T13:50:26Z</time></trkpt><trkpt lat="42.871480605884194" lon="-0.9085087345663797"><ele>844.0</ele><time>2026-03-31T13:50:27Z</time></trkpt><trkpt lat="42.871530462173894" lon="-0.9086070437607361"><ele>848.4999999999999</ele><time>2026-03-31T13:50:28Z</time></trkpt><trkpt lat="42.87161465979153" lon="-0.90867965877849"><ele>853.0</ele><time>2026-03-31T13:50:30Z</time></trkpt><trkpt lat="42.871667184872244" lon="-0.9086251394455963"><ele>857.5</ele><time>2026-03-31T13:50:32Z</time></trkpt><trkpt lat="42.87173801221634" lon="-0.9086022861507296"><ele>862.0</ele><time>2026-03-31T13:50:35Z</time></trkpt><trkpt lat="42.8716666814387" lon="-0.9085927357026851"><ele>866.4999999999999</ele><time>2026-03-31T13:50:54Z</time></trkpt><trkpt lat="42.87175820720739" lon="-0.9085913117147296"><ele>871.0</ele><time>2026-03-31T13:51:48Z</time></trkpt><trkpt lat="42.87187587115753" lon="-0.9085372639311121"><ele>874.3333333333333</ele><time>2026-03-31T13:51:49Z</time></trkpt><trkpt lat="42.87202594096833" lon="-0.9084508305901797"><ele>877.6666666666667</ele><time>2026-03-31T13:51:50Z</time></trkpt><trkpt lat="42.87219120927549" lon="-0.9083533273176604"><ele>881.0</ele><time>2026-03-31T13:51:51Z</time></trkpt><trkpt lat="42.87235519585824" lon="-0.9082551425987029"><ele>869.3333333333334</ele><time>2026-03-31T13:51:52Z</time></trkpt><trkpt lat="42.87249154718333" lon="-0.908114447781793"><ele>857.6666666666667</ele><time>2026-03-31T13:51:53Z</time></trkpt><trkpt lat="42.87261868142219" lon="-0.9079676054960965"><ele>846.0</ele><time>2026-03-31T13:51:54Z</time></trkpt><trkpt lat="42.872753875681845" lon="-0.9078432830349975"><ele>846.0</ele><time>2026-03-31T13:51:55Z</time></trkpt><trkpt lat="42.87289304925596" lon="-0.9077379750265094"><ele>846.0</ele><time>2026-03-31T13:51:56Z</time></trkpt><trkpt lat="42.873051406382665" lon="-0.9076880776143603"><ele>846.0</ele><time>2026-03-31T13:51:57Z</time></trkpt><trkpt lat="42.87322410857038" lon="-0.9076886282298328"><ele>846.0</ele><time>2026-03-31T13:51:58Z</time></trkpt><trkpt lat="42.873403097045504" lon="-0.9076892016379208"><ele>846.0</ele><time>2026-03-31T13:51:59Z</time></trkpt><trkpt lat="42.87357044811692" lon="-0.9076586639023663"><ele>846.0</ele><time>2026-03-31T13:52:00Z</time></trkpt><trkpt lat="42.87371996800308" lon="-0.9075846910405323"><ele>841.3333333333333</ele><time>2026-03-31T13:52:01Z</time></trkpt><trkpt lat="42.87385237669927" lon="-0.9074590982271308"><ele>836.6666666666666</ele><time>2026-03-31T13:52:02Z</time></trkpt><trkpt lat="42.87397547347849" lon="-0.9072588590483776"><ele>832.0</ele><time>2026-03-31T13:52:03Z</time></trkpt><trkpt lat="42.874120171184686" lon="-0.9070455213547146"><ele>830.0</ele><time>2026-03-31T13:52:04Z</time></trkpt><trkpt lat="42.874280868339056" lon="-0.9068245027696703"><ele>828.0</ele><time>2026-03-31T13:52:05Z</time></trkpt><trkpt lat="42.87443080470199" lon="-0.9065922562927755"><ele>828.0</ele><time>2026-03-31T13:52:06Z</time></trkpt><trkpt lat="42.874590645991155" lon="-0.9063648194741212"><ele>828.0</ele><time>2026-03-31T13:52:07Z</time></trkpt><trkpt lat="42.8747531442815" lon="-0.9061362989845289"><ele>826.5</ele><time>2026-03-31T13:52:08Z</time></trkpt><trkpt lat="42.874914021155796" lon="-0.9059003420556924"><ele>825.0</ele><time>2026-03-31T13:52:09Z</time></trkpt><trkpt lat="42.875079266224326" lon="-0.9056620313376209"><ele>832.0</ele><time>2026-03-31T13:52:10Z</time></trkpt><trkpt lat="42.875242203124174" lon="-0.9054296142790683"><ele>839.0</ele><time>2026-03-31T13:52:11Z</time></trkpt><trkpt lat="42.87540137059855" lon="-0.9051950556143651"><ele>833.5</ele><time>2026-03-31T13:52:12Z</time></trkpt><trkpt lat="42.875559174045215" lon="-0.9049645895025145"><ele>828.0</ele><time>2026-03-31T13:52:13Z</time></trkpt><trkpt lat="42.87571619403167" lon="-0.9047280150550631"><ele>828.0</ele><time>2026-03-31T13:52:14Z</time></trkpt><trkpt lat="42.87587855486154" lon="-0.9044929364990234"><ele>828.0</ele><time>2026-03-31T13:52:15Z</time></trkpt><trkpt lat="42.87603817165172" lon="-0.9042650226979428"><ele>833.0</ele><time>2026-03-31T13:52:16Z</time></trkpt><trkpt lat="42.87619067986799" lon="-0.9040481147781331"><ele>838.0</ele><time>2026-03-31T13:52:17Z</time></trkpt><trkpt lat="42.87635287021433" lon="-0.9038415899559832"><ele>843.0</ele><time>2026-03-31T13:52:18Z</time></trkpt><trkpt lat="42.87652708937437" lon="-0.9036666503041187"><ele>843.0</ele><time>2026-03-31T13:52:19Z</time></trkpt><trkpt lat="42.87671436217651" lon="-0.9035268529876616"><ele>843.0</ele><time>2026-03-31T13:52:20Z</time></trkpt><trkpt lat="42.87690948184169" lon="-0.9034097354443384"><ele>843.0</ele><time>2026-03-31T13:52:21Z</time></trkpt><trkpt lat="42.87709366406533" lon="-0.9032871588524842"><ele>845.0</ele><time>2026-03-31T13:52:22Z</time></trkpt><trkpt lat="42.87726673155413" lon="-0.9031217357706574"><ele>847.0</ele><time>2026-03-31T13:52:23Z</time></trkpt><trkpt lat="42.87743313849784" lon="-0.9029016128676981"><ele>849.0</ele><time>2026-03-31T13:52:24Z</time></trkpt><trkpt lat="42.877618907027" lon="-0.9027091503350912"><ele>854.5</ele><time>2026-03-31T13:52:25Z</time></trkpt><trkpt lat="42.87779559018173" lon="-0.902506713532939"><ele>860.0</ele><time>2026-03-31T13:52:26Z</time></trkpt><trkpt lat="42.877986818007585" lon="-0.9023164140692373"><ele>860.0</ele><time>2026-03-31T13:52:27Z</time></trkpt><trkpt lat="42.878191195860104" lon="-0.9021499165626293"><ele>860.0</ele><time>2026-03-31T13:52:28Z</time></trkpt><trkpt lat="42.878409000362396" lon="-0.9020114875905033"><ele>879.0</ele><time>2026-03-31T13:52:29Z</time></trkpt><trkpt lat="42.87863457886902" lon="-0.9018894260085919"><ele>898.0</ele><time>2026-03-31T13:52:30Z</time></trkpt><trkpt lat="42.878860761491396" lon="-0.9017626461292146"><ele>890.5</ele><time>2026-03-31T13:52:31Z</time></trkpt><trkpt lat="42.87908536799198" lon="-0.9016206027086862"><ele>883.0</ele><time>2026-03-31T13:52:32Z</time></trkpt><trkpt lat="42.87928523694103" lon="-0.9014537396193544"><ele>883.0</ele><time>2026-03-31T13:52:33Z</time></trkpt><trkpt lat="42.87949733780915" lon="-0.9012900982422665"><ele>883.0</ele><time>2026-03-31T13:52:34Z</time></trkpt><trkpt lat="42.879702767351866" lon="-0.9011218299689622"><ele>883.0</ele><time>2026-03-31T13:52:35Z</time></trkpt><trkpt lat="42.87990330476413" lon="-0.9009580698878411"><ele>883.0</ele><time>2026-03-31T13:52:36Z</time></trkpt><trkpt lat="42.88008394876042" lon="-0.9007635240414192"><ele>869.0</ele><time>2026-03-31T13:52:37Z</time></trkpt><trkpt lat="42.880252506153305" lon="-0.9005522270479845"><ele>855.0</ele><time>2026-03-31T13:52:38Z</time></trkpt><trkpt lat="42.88040639433838" lon="-0.9003251462251352"><ele>855.0</ele><time>2026-03-31T13:52:39Z</time></trkpt><trkpt lat="42.88055056322967" lon="-0.9000944486399339"><ele>855.0</ele><time>2026-03-31T13:52:40Z</time></trkpt><trkpt lat="42.88069498612775" lon="-0.8998698974112618"><ele>855.0</ele><time>2026-03-31T13:52:41Z</time></trkpt><trkpt lat="42.88084025987663" lon="-0.8996573350533188"><ele>853.0</ele><time>2026-03-31T13:52:42Z</time></trkpt><trkpt lat="42.88098929054952" lon="-0.899450659302184"><ele>851.0</ele><time>2026-03-31T13:52:43Z</time></trkpt><trkpt lat="42.88114129187847" lon="-0.8992487281351058"><ele>849.0</ele><time>2026-03-31T13:52:44Z</time></trkpt><trkpt lat="42.88129702413367" lon="-0.8990498774069121"><ele>846.0</ele><time>2026-03-31T13:52:45Z</time></trkpt><trkpt lat="42.881464331558576" lon="-0.8988461615618123"><ele>843.0</ele><time>2026-03-31T13:52:46Z</time></trkpt><trkpt lat="42.881639724763446" lon="-0.8986512714596536"><ele>844.5</ele><time>2026-03-31T13:52:47Z</time></trkpt><trkpt lat="42.881823599028166" lon="-0.898457162670675"><ele>846.0</ele><time>2026-03-31T13:52:48Z</time></trkpt><trkpt lat="42.88201222154454" lon="-0.8982670839133696"><ele>846.0</ele><time>2026-03-31T13:52:49Z</time></trkpt><trkpt lat="42.882197469299314" lon="-0.8980827774773815"><ele>846.0</ele><time>2026-03-31T13:52:50Z</time></trkpt><trkpt lat="42.882378420313444" lon="-0.8979127774379103"><ele>846.0</ele><time>2026-03-31T13:52:51Z</time></trkpt><trkpt lat="42.88254288964712" lon="-0.8977664547247819"><ele>847.0</ele><time>2026-03-31T13:52:52Z</time></trkpt><trkpt lat="42.88268854217643" lon="-0.897640511275873"><ele>848.0</ele><time>2026-03-31T13:52:53Z</time></trkpt><trkpt lat="42.882841235981395" lon="-0.8975281834271138"><ele>849.0</ele><time>2026-03-31T13:52:54Z</time></trkpt><trkpt lat="42.88301699701183" lon="-0.8974587583629572"><ele>849.0</ele><time>2026-03-31T13:52:55Z</time></trkpt><trkpt lat="42.88318244940399" lon="-0.8973750408602218"><ele>849.0</ele><time>2026-03-31T13:52:56Z</time></trkpt><trkpt lat="42.883337880980484" lon="-0.8972989649346559"><ele>849.0</ele><time>2026-03-31T13:52:57Z</time></trkpt><trkpt lat="42.88352007466213" lon="-0.8974728444214606"><ele>849.2</ele><time>2026-03-31T13:52:58Z</time></trkpt><trkpt lat="42.88364395183516" lon="-0.8975159388039473"><ele>849.4000000000001</ele><time>2026-03-31T13:52:59Z</time></trkpt><trkpt lat="42.88374641688856" lon="-0.897560755334327"><ele>849.6</ele><time>2026-03-31T13:53:00Z</time></trkpt><trkpt lat="42.88382554272575" lon="-0.8976002399227903"><ele>849.8</ele><time>2026-03-31T13:53:01Z</time></trkpt><trkpt lat="42.88394366379118" lon="-0.897590728288797"><ele>850.0</ele><time>2026-03-31T13:53:03Z</time></trkpt><trkpt lat="42.88401697881831" lon="-0.8975903223433362"><ele>849.9999999999999</ele><time>2026-03-31T13:53:05Z</time></trkpt><trkpt lat="42.883986925286514" lon="-0.8976691088791519"><ele>850.0</ele><time>2026-03-31T13:54:11Z</time></trkpt><trkpt lat="42.88401177841481" lon="-0.8975817712282765"><ele>850.0</ele><time>2026-03-31T13:58:17Z</time></trkpt><trkpt lat="42.884085466531545" lon="-0.897631872667915"><ele>850.0</ele><time>2026-03-31T14:01:14Z</time></trkpt><trkpt lat="42.88414277325471" lon="-0.8976979075928224"><ele>849.9999999999999</ele><time>2026-03-31T14:01:15Z</time></trkpt><trkpt lat="42.884224888322784" lon="-0.8978300561953988"><ele>850.0</ele><time>2026-03-31T14:01:17Z</time></trkpt><trkpt lat="42.88426662049394" lon="-0.8979253034178426"><ele>851.0</ele><time>2026-03-31T14:01:18Z</time></trkpt><trkpt lat="42.884294755694555" lon="-0.8980037294831401"><ele>852.0</ele><time>2026-03-31T14:01:19Z</time></trkpt><trkpt lat="42.884358101960174" lon="-0.898160248460291"><ele>853.0</ele><time>2026-03-31T14:01:21Z</time></trkpt><trkpt lat="42.88441339995394" lon="-0.8982602116625876"><ele>854.0</ele><time>2026-03-31T14:01:22Z</time></trkpt><trkpt lat="42.88449574760692" lon="-0.8983633499691457"><ele>855.0</ele><time>2026-03-31T14:01:23Z</time></trkpt><trkpt lat="42.88459974569409" lon="-0.8984488251772321"><ele>861.6666666666667</ele><time>2026-03-31T14:01:24Z</time></trkpt><trkpt lat="42.88473698226019" lon="-0.8985154748465167"><ele>868.3333333333334</ele><time>2026-03-31T14:01:25Z</time></trkpt><trkpt lat="42.88490171310307" lon="-0.8985561485070644"><ele>875.0</ele><time>2026-03-31T14:01:26Z</time></trkpt><trkpt lat="42.88507460263658" lon="-0.8985679734282461"><ele>873.6666666666667</ele><time>2026-03-31T14:01:27Z</time></trkpt><trkpt lat="42.885255835439004" lon="-0.8985535938662849"><ele>872.3333333333333</ele><time>2026-03-31T14:01:28Z</time></trkpt><trkpt lat="42.88541281914041" lon="-0.8985006336592583"><ele>871.0</ele><time>2026-03-31T14:01:29Z</time></trkpt><trkpt lat="42.885526074152175" lon="-0.8983838883620301"><ele>871.0</ele><time>2026-03-31T14:01:30Z</time></trkpt><trkpt lat="42.885637218938456" lon="-0.8982583597318019"><ele>871.0</ele><time>2026-03-31T14:01:31Z</time></trkpt><trkpt lat="42.8857396661214" lon="-0.8980984597709422"><ele>871.0</ele><time>2026-03-31T14:01:32Z</time></trkpt><trkpt lat="42.885852079459944" lon="-0.8979046876170222"><ele>876.3333333333333</ele><time>2026-03-31T14:01:33Z</time></trkpt><trkpt lat="42.885970752617695" lon="-0.8976820428490324"><ele>881.6666666666667</ele><time>2026-03-31T14:01:34Z</time></trkpt><trkpt lat="42.88609228737793" lon="-0.8974338581747967"><ele>887.0</ele><time>2026-03-31T14:01:35Z</time></trkpt><trkpt lat="42.88620628598991" lon="-0.89718346825754"><ele>887.0</ele><time>2026-03-31T14:01:36Z</time></trkpt><trkpt lat="42.88630549188761" lon="-0.8969233776675277"><ele>887.0</ele><time>2026-03-31T14:01:37Z</time></trkpt><trkpt lat="42.886381414165314" lon="-0.8966777391092384"><ele>887.0</ele><time>2026-03-31T14:01:38Z</time></trkpt><trkpt lat="42.886447658340565" lon="-0.8964492838953482"><ele>884.0</ele><time>2026-03-31T14:01:39Z</time></trkpt><trkpt lat="42.886531508639266" lon="-0.896246228184923"><ele>881.0</ele><time>2026-03-31T14:01:40Z</time></trkpt><trkpt lat="42.88664208259449" lon="-0.8960708306908111"><ele>878.0</ele><time>2026-03-31T14:01:41Z</time></trkpt><trkpt lat="42.8867827615817" lon="-0.8959228965948135"><ele>881.6666666666667</ele><time>2026-03-31T14:01:42Z</time></trkpt><trkpt lat="42.88694412362779" lon="-0.8958082751166627"><ele>885.3333333333333</ele><time>2026-03-31T14:01:43Z</time></trkpt><trkpt lat="42.887126412704724" lon="-0.895717130453398"><ele>889.0</ele><time>2026-03-31T14:01:44Z</time></trkpt><trkpt lat="42.88732256854332" lon="-0.8956270705776589"><ele>889.0</ele><time>2026-03-31T14:01:45Z</time></trkpt><trkpt lat="42.887520771145816" lon="-0.8955127519043092"><ele>889.0</ele><time>2026-03-31T14:01:46Z</time></trkpt><trkpt lat="42.88772428280172" lon="-0.8953776602057715"><ele>889.0</ele><time>2026-03-31T14:01:47Z</time></trkpt><trkpt lat="42.887934976692655" lon="-0.8952454482511877"><ele>886.3333333333333</ele><time>2026-03-31T14:01:48Z</time></trkpt><trkpt lat="42.88814369183735" lon="-0.8951323161838127"><ele>883.6666666666667</ele><time>2026-03-31T14:01:49Z</time></trkpt><trkpt lat="42.888351325666896" lon="-0.8950205464755071"><ele>881.0</ele><time>2026-03-31T14:01:50Z</time></trkpt><trkpt lat="42.8885542301688" lon="-0.8948870625333977"><ele>881.0</ele><time>2026-03-31T14:01:51Z</time></trkpt><trkpt lat="42.88874155083339" lon="-0.8947494496391369"><ele>881.0</ele><time>2026-03-31T14:01:52Z</time></trkpt><trkpt lat="42.888906470541116" lon="-0.8946162680105784"><ele>881.0</ele><time>2026-03-31T14:01:53Z</time></trkpt><trkpt lat="42.88904341712807" lon="-0.8944598374507509"><ele>881.0</ele><time>2026-03-31T14:01:54Z</time></trkpt><trkpt lat="42.889148150735515" lon="-0.8942679334985657"><ele>881.0</ele><time>2026-03-31T14:01:55Z</time></trkpt><trkpt lat="42.88923544812251" lon="-0.8940510813446602"><ele>881.0</ele><time>2026-03-31T14:01:56Z</time></trkpt><trkpt lat="42.889337471303435" lon="-0.893835363419949"><ele>883.0</ele><time>2026-03-31T14:01:57Z</time></trkpt><trkpt lat="42.88947422197324" lon="-0.893656013932501"><ele>885.0</ele><time>2026-03-31T14:01:58Z</time></trkpt><trkpt lat="42.88963768798518" lon="-0.8935341950548616"><ele>887.0</ele><time>2026-03-31T14:01:59Z</time></trkpt><trkpt lat="42.88981821730124" lon="-0.8934835649710386"><ele>887.0</ele><time>2026-03-31T14:02:00Z</time></trkpt><trkpt lat="42.890019937978366" lon="-0.8934825456295806"><ele>887.0</ele><time>2026-03-31T14:02:01Z</time></trkpt><trkpt lat="42.89024278306301" lon="-0.8935241157405369"><ele>887.0</ele><time>2026-03-31T14:02:02Z</time></trkpt><trkpt lat="42.89045832817932" lon="-0.8935781409400014"><ele>890.0</ele><time>2026-03-31T14:02:03Z</time></trkpt><trkpt lat="42.890676725456764" lon="-0.8936307214215368"><ele>893.0</ele><time>2026-03-31T14:02:04Z</time></trkpt><trkpt lat="42.89088639174645" lon="-0.8936761989575552"><ele>896.0</ele><time>2026-03-31T14:02:05Z</time></trkpt><trkpt lat="42.891078966613485" lon="-0.8937008860675653"><ele>899.6666666666667</ele><time>2026-03-31T14:02:06Z</time></trkpt><trkpt lat="42.891257423345444" lon="-0.8937058996227928"><ele>903.3333333333333</ele><time>2026-03-31T14:02:07Z</time></trkpt><trkpt lat="42.89142383789932" lon="-0.893678377781882"><ele>907.0</ele><time>2026-03-31T14:02:08Z</time></trkpt><trkpt lat="42.89157502709467" lon="-0.8936118275584833"><ele>907.0</ele><time>2026-03-31T14:02:09Z</time></trkpt><trkpt lat="42.89172111821882" lon="-0.8935045288002496"><ele>907.0</ele><time>2026-03-31T14:02:10Z</time></trkpt><trkpt lat="42.89185856541804" lon="-0.8933499609411342"><ele>907.0</ele><time>2026-03-31T14:02:11Z</time></trkpt><trkpt lat="42.89202262428988" lon="-0.8931660452493594"><ele>900.6666666666666</ele><time>2026-03-31T14:02:12Z</time></trkpt><trkpt lat="42.892172713711794" lon="-0.8929884850248945"><ele>894.3333333333333</ele><time>2026-03-31T14:02:13Z</time></trkpt><trkpt lat="42.89232162326861" lon="-0.8928004430273314"><ele>888.0</ele><time>2026-03-31T14:02:14Z</time></trkpt><trkpt lat="42.892472953084734" lon="-0.8926079455208538"><ele>886.0</ele><time>2026-03-31T14:02:15Z</time></trkpt><trkpt lat="42.89263283354892" lon="-0.8924205817068102"><ele>884.0</ele><time>2026-03-31T14:02:16Z</time></trkpt><trkpt lat="42.89279125901895" lon="-0.8922348117489465"><ele>882.0</ele><time>2026-03-31T14:02:17Z</time></trkpt><trkpt lat="42.892947134441485" lon="-0.8920641963882232"><ele>882.0</ele><time>2026-03-31T14:02:18Z</time></trkpt><trkpt lat="42.89310602936878" lon="-0.8919332054080248"><ele>882.0</ele><time>2026-03-31T14:02:19Z</time></trkpt><trkpt lat="42.893285795416595" lon="-0.8918488844159576"><ele>882.0</ele><time>2026-03-31T14:02:20Z</time></trkpt><trkpt lat="42.89347772861041" lon="-0.8918138953887571"><ele>888.0</ele><time>2026-03-31T14:02:21Z</time></trkpt><trkpt lat="42.89367910288819" lon="-0.8918208707938294"><ele>894.0</ele><time>2026-03-31T14:02:22Z</time></trkpt><trkpt lat="42.893882083947815" lon="-0.8918548045046643"><ele>900.0</ele><time>2026-03-31T14:02:23Z</time></trkpt><trkpt lat="42.894077654272316" lon="-0.891873218303178"><ele>900.0</ele><time>2026-03-31T14:02:24Z</time></trkpt><trkpt lat="42.894253342640425" lon="-0.8918407366897956"><ele>900.0</ele><time>2026-03-31T14:02:25Z</time></trkpt><trkpt lat="42.89441357320129" lon="-0.8917553280556181"><ele>900.0</ele><time>2026-03-31T14:02:26Z</time></trkpt><trkpt lat="42.89456474922537" lon="-0.8916202295066327"><ele>893.6666666666667</ele><time>2026-03-31T14:02:27Z</time></trkpt><trkpt lat="42.89472596910867" lon="-0.8914537851185855"><ele>887.3333333333334</ele><time>2026-03-31T14:02:28Z</time></trkpt><trkpt lat="42.89487857497799" lon="-0.8912677263917077"><ele>881.0</ele><time>2026-03-31T14:02:29Z</time></trkpt><trkpt lat="42.895041726753824" lon="-0.8910625198429166"><ele>882.0</ele><time>2026-03-31T14:02:30Z</time></trkpt><trkpt lat="42.895216925923236" lon="-0.8908532170651664"><ele>883.0</ele><time>2026-03-31T14:02:31Z</time></trkpt><trkpt lat="42.89539858407729" lon="-0.8906498919307724"><ele>883.0</ele><time>2026-03-31T14:02:32Z</time></trkpt><trkpt lat="42.89558711170688" lon="-0.8904701170887601"><ele>883.0</ele><time>2026-03-31T14:02:33Z</time></trkpt><trkpt lat="42.895788290238336" lon="-0.8903104807352126"><ele>883.5</ele><time>2026-03-31T14:02:34Z</time></trkpt><trkpt lat="42.89598934399707" lon="-0.8901669549890313"><ele>884.0</ele><time>2026-03-31T14:02:35Z</time></trkpt><trkpt lat="42.89619440263914" lon="-0.8900186881987056"><ele>884.0</ele><time>2026-03-31T14:02:36Z</time></trkpt><trkpt lat="42.89638125717644" lon="-0.8898813407702666"><ele>884.0</ele><time>2026-03-31T14:02:37Z</time></trkpt><trkpt lat="42.89655223305221" lon="-0.8897545019956993"><ele>884.0</ele><time>2026-03-31T14:02:38Z</time></trkpt><trkpt lat="42.89670937446654" lon="-0.8896588709717604"><ele>884.3333333333334</ele><time>2026-03-31T14:02:39Z</time></trkpt><trkpt lat="42.89687598052976" lon="-0.8896012796752742"><ele>884.6666666666667</ele><time>2026-03-31T14:02:40Z</time></trkpt><trkpt lat="42.89704778973492" lon="-0.8895897159893225"><ele>885.0</ele><time>2026-03-31T14:02:41Z</time></trkpt><trkpt lat="42.897210613809115" lon="-0.8896273699859372"><ele>885.0</ele><time>2026-03-31T14:02:42Z</time></trkpt><trkpt lat="42.89735930680758" lon="-0.8897158007101882"><ele>885.0</ele><time>2026-03-31T14:02:43Z</time></trkpt><trkpt lat="42.8975017427563" lon="-0.8898340344724637"><ele>885.0</ele><time>2026-03-31T14:02:44Z</time></trkpt><trkpt lat="42.897645720442135" lon="-0.8899715902899156"><ele>888.6666666666667</ele><time>2026-03-31T14:02:45Z</time></trkpt><trkpt lat="42.897802006449176" lon="-0.8901127667639481"><ele>892.3333333333334</ele><time>2026-03-31T14:02:46Z</time></trkpt><trkpt lat="42.89796621065887" lon="-0.890259214709326"><ele>896.0</ele><time>2026-03-31T14:02:47Z</time></trkpt><trkpt lat="42.89813940143912" lon="-0.8904080587686252"><ele>896.0</ele><time>2026-03-31T14:02:48Z</time></trkpt><trkpt lat="42.898324608596674" lon="-0.890527560321037"><ele>896.0</ele><time>2026-03-31T14:02:49Z</time></trkpt><trkpt lat="42.89851969336316" lon="-0.8906178419439023"><ele>896.0</ele><time>2026-03-31T14:02:50Z</time></trkpt><trkpt lat="42.89872120348771" lon="-0.89070094430166"><ele>897.6666666666667</ele><time>2026-03-31T14:02:51Z</time></trkpt><trkpt lat="42.89892386157007" lon="-0.8907585262080466"><ele>899.3333333333333</ele><time>2026-03-31T14:02:52Z</time></trkpt><trkpt lat="42.89913625363862" lon="-0.8908010895881219"><ele>901.0</ele><time>2026-03-31T14:02:53Z</time></trkpt><trkpt lat="42.89934421721222" lon="-0.8908177587321311"><ele>901.0</ele><time>2026-03-31T14:02:54Z</time></trkpt><trkpt lat="42.89951251708664" lon="-0.8907934119800055"><ele>901.0</ele><time>2026-03-31T14:02:55Z</time></trkpt><trkpt lat="42.89967987416217" lon="-0.8907247683560301"><ele>901.0</ele><time>2026-03-31T14:02:56Z</time></trkpt><trkpt lat="42.89982778369344" lon="-0.8906019257938991"><ele>901.0</ele><time>2026-03-31T14:02:57Z</time></trkpt><trkpt lat="42.89996972569439" lon="-0.8904306531058601"><ele>901.0</ele><time>2026-03-31T14:02:58Z</time></trkpt><trkpt lat="42.9001128637942" lon="-0.8902492134980647"><ele>901.0</ele><time>2026-03-31T14:02:59Z</time></trkpt><trkpt lat="42.90025977939359" lon="-0.8900778827686877"><ele>900.3333333333333</ele><time>2026-03-31T14:03:00Z</time></trkpt><trkpt lat="42.900417850578854" lon="-0.88993358567218"><ele>899.6666666666667</ele><time>2026-03-31T14:03:01Z</time></trkpt><trkpt lat="42.90059288788223" lon="-0.8898317923567632"><ele>899.0</ele><time>2026-03-31T14:03:02Z</time></trkpt><trkpt lat="42.900779904337504" lon="-0.8897771581538749"><ele>903.6666666666667</ele><time>2026-03-31T14:03:03Z</time></trkpt><trkpt lat="42.90097201917749" lon="-0.8897640994239495"><ele>908.3333333333333</ele><time>2026-03-31T14:03:04Z</time></trkpt><trkpt lat="42.90116789536822" lon="-0.889754997782045"><ele>913.0</ele><time>2026-03-31T14:03:05Z</time></trkpt><trkpt lat="42.90135841845741" lon="-0.8897161137929446"><ele>913.0</ele><time>2026-03-31T14:03:06Z</time></trkpt><trkpt lat="42.901514903197025" lon="-0.8896465422794955"><ele>913.0</ele><time>2026-03-31T14:03:07Z</time></trkpt><trkpt lat="42.90165038755584" lon="-0.8895292931815958"><ele>913.0</ele><time>2026-03-31T14:03:08Z</time></trkpt><trkpt lat="42.90176436837639" lon="-0.8893679381583683"><ele>921.3333333333333</ele><time>2026-03-31T14:03:09Z</time></trkpt><trkpt lat="42.90188049565504" lon="-0.8891369213624019"><ele>929.6666666666667</ele><time>2026-03-31T14:03:10Z</time></trkpt><trkpt lat="42.90200888358132" lon="-0.8888857169379185"><ele>938.0</ele><time>2026-03-31T14:03:11Z</time></trkpt><trkpt lat="42.90215779189509" lon="-0.8886261279314731"><ele>943.3333333333334</ele><time>2026-03-31T14:03:12Z</time></trkpt><trkpt lat="42.9023135605005" lon="-0.8884015637077426"><ele>948.6666666666667</ele><time>2026-03-31T14:03:13Z</time></trkpt><trkpt lat="42.902466723978144" lon="-0.8881912307040646"><ele>954.0</ele><time>2026-03-31T14:03:14Z</time></trkpt><trkpt lat="42.9026292214811" lon="-0.8879996728468511"><ele>954.0</ele><time>2026-03-31T14:03:15Z</time></trkpt><trkpt lat="42.90277738346381" lon="-0.8878120218494099"><ele>954.0</ele><time>2026-03-31T14:03:16Z</time></trkpt><trkpt lat="42.90289396980749" lon="-0.8876203836198888"><ele>954.0</ele><time>2026-03-31T14:03:17Z</time></trkpt><trkpt lat="42.9029846258703" lon="-0.8874146672527045"><ele>943.0</ele><time>2026-03-31T14:03:18Z</time></trkpt><trkpt lat="42.90297586858364" lon="-0.8871812172470865"><ele>932.0</ele><time>2026-03-31T14:03:19Z</time></trkpt><trkpt lat="42.9029824973658" lon="-0.8869511604867077"><ele>921.0</ele><time>2026-03-31T14:03:20Z</time></trkpt><trkpt lat="42.90298553569971" lon="-0.8867066518886714"><ele>916.0</ele><time>2026-03-31T14:03:21Z</time></trkpt><trkpt lat="42.90299020038848" lon="-0.8864487509209594"><ele>911.0</ele><time>2026-03-31T14:03:22Z</time></trkpt><trkpt lat="42.90301048251935" lon="-0.8861902527893922"><ele>906.0</ele><time>2026-03-31T14:03:23Z</time></trkpt><trkpt lat="42.90304825380767" lon="-0.8859344799569057"><ele>903.3333333333333</ele><time>2026-03-31T14:03:24Z</time></trkpt><trkpt lat="42.90312451222084" lon="-0.8856952172727313"><ele>900.6666666666666</ele><time>2026-03-31T14:03:25Z</time></trkpt><trkpt lat="42.903235135598266" lon="-0.885483890517337"><ele>898.0</ele><time>2026-03-31T14:03:26Z</time></trkpt><trkpt lat="42.90337937400322" lon="-0.8853175368198628"><ele>899.3333333333333</ele><time>2026-03-31T14:03:27Z</time></trkpt><trkpt lat="42.903552202467985" lon="-0.8851870926481042"><ele>900.6666666666667</ele><time>2026-03-31T14:03:28Z</time></trkpt><trkpt lat="42.90374175782683" lon="-0.8850799280935622"><ele>902.0</ele><time>2026-03-31T14:03:29Z</time></trkpt><trkpt lat="42.90393638973283" lon="-0.8849716681580366"><ele>902.0</ele><time>2026-03-31T14:03:30Z</time></trkpt><trkpt lat="42.90412323727051" lon="-0.8848472127075695"><ele>902.0</ele><time>2026-03-31T14:03:31Z</time></trkpt><trkpt lat="42.904280674447456" lon="-0.8846567498334548"><ele>902.0</ele><time>2026-03-31T14:03:32Z</time></trkpt><trkpt lat="42.904409734583936" lon="-0.8844464246674238"><ele>902.0</ele><time>2026-03-31T14:03:33Z</time></trkpt><trkpt lat="42.90455427856134" lon="-0.8842358425835777"><ele>902.0</ele><time>2026-03-31T14:03:34Z</time></trkpt><trkpt lat="42.90468348653106" lon="-0.8840113806888241"><ele>902.0</ele><time>2026-03-31T14:03:35Z</time></trkpt><trkpt lat="42.90481990950335" lon="-0.8838096000792967"><ele>902.0</ele><time>2026-03-31T14:03:36Z</time></trkpt><trkpt lat="42.904970076888866" lon="-0.883635264952218"><ele>902.0</ele><time>2026-03-31T14:03:37Z</time></trkpt><trkpt lat="42.90513211678119" lon="-0.8834917042512953"><ele>902.0</ele><time>2026-03-31T14:03:38Z</time></trkpt><trkpt lat="42.90530395127374" lon="-0.8833812463251706"><ele>903.0</ele><time>2026-03-31T14:03:39Z</time></trkpt><trkpt lat="42.90548513045672" lon="-0.8833191178927803"><ele>904.0</ele><time>2026-03-31T14:03:40Z</time></trkpt><trkpt lat="42.9056725649224" lon="-0.8833153755894043"><ele>905.0</ele><time>2026-03-31T14:03:41Z</time></trkpt><trkpt lat="42.90586305712768" lon="-0.8833321118637704"><ele>912.3333333333334</ele><time>2026-03-31T14:03:42Z</time></trkpt><trkpt lat="42.90605762910104" lon="-0.8833144416295151"><ele>919.6666666666667</ele><time>2026-03-31T14:03:43Z</time></trkpt><trkpt lat="42.90625610501345" lon="-0.8832347979305338"><ele>927.0</ele><time>2026-03-31T14:03:44Z</time></trkpt><trkpt lat="42.90645109231344" lon="-0.883111615258642"><ele>927.0</ele><time>2026-03-31T14:03:45Z</time></trkpt><trkpt lat="42.90662882574663" lon="-0.8829500400492719"><ele>927.0</ele><time>2026-03-31T14:03:46Z</time></trkpt><trkpt lat="42.906792170370984" lon="-0.8827669278402183"><ele>927.0</ele><time>2026-03-31T14:03:47Z</time></trkpt><trkpt lat="42.90695136468734" lon="-0.8825821221846345"><ele>926.0</ele><time>2026-03-31T14:03:48Z</time></trkpt><trkpt lat="42.90713529426418" lon="-0.8824249831432364"><ele>925.0</ele><time>2026-03-31T14:03:49Z</time></trkpt><trkpt lat="42.90733729013389" lon="-0.8823099505191088"><ele>924.0</ele><time>2026-03-31T14:03:50Z</time></trkpt><trkpt lat="42.90755623256876" lon="-0.8822090940968046"><ele>933.5</ele><time>2026-03-31T14:03:51Z</time></trkpt><trkpt lat="42.907778073111835" lon="-0.8821005572616784"><ele>943.0</ele><time>2026-03-31T14:03:52Z</time></trkpt><trkpt lat="42.907985228816464" lon="-0.8819856177350106"><ele>943.0</ele><time>2026-03-31T14:03:53Z</time></trkpt><trkpt lat="42.90818893738786" lon="-0.8818528985129618"><ele>943.0</ele><time>2026-03-31T14:03:54Z</time></trkpt><trkpt lat="42.908379049600555" lon="-0.8817046485942778"><ele>943.0</ele><time>2026-03-31T14:03:55Z</time></trkpt><trkpt lat="42.908559734955276" lon="-0.881525243820734"><ele>942.0</ele><time>2026-03-31T14:03:56Z</time></trkpt><trkpt lat="42.908699684956986" lon="-0.8812952559446453"><ele>941.0</ele><time>2026-03-31T14:03:57Z</time></trkpt><trkpt lat="42.90885096146438" lon="-0.8810841440517252"><ele>940.0</ele><time>2026-03-31T14:03:58Z</time></trkpt><trkpt lat="42.90898530193156" lon="-0.8808552621286422"><ele>937.0</ele><time>2026-03-31T14:03:59Z</time></trkpt><trkpt lat="42.909133651408794" lon="-0.8806343670784904"><ele>934.0</ele><time>2026-03-31T14:04:00Z</time></trkpt><trkpt lat="42.90929004629384" lon="-0.8804122394641649"><ele>931.0</ele><time>2026-03-31T14:04:01Z</time></trkpt><trkpt lat="42.90944904695056" lon="-0.8801884181593714"><ele>924.6666666666666</ele><time>2026-03-31T14:04:02Z</time></trkpt><trkpt lat="42.90960603115441" lon="-0.8799725812102885"><ele>918.3333333333333</ele><time>2026-03-31T14:04:03Z</time></trkpt><trkpt lat="42.90976230697134" lon="-0.8797624942517107"><ele>912.0</ele><time>2026-03-31T14:04:04Z</time></trkpt><trkpt lat="42.90991504520254" lon="-0.87955386197967"><ele>912.0</ele><time>2026-03-31T14:04:05Z</time></trkpt><trkpt lat="42.910065893758656" lon="-0.8793483882997486"><ele>912.0</ele><time>2026-03-31T14:04:06Z</time></trkpt><trkpt lat="42.91021531921678" lon="-0.8791487970847025"><ele>912.0</ele><time>2026-03-31T14:04:07Z</time></trkpt><trkpt lat="42.91036640332069" lon="-0.8789508665099312"><ele>911.6666666666667</ele><time>2026-03-31T14:04:08Z</time></trkpt><trkpt lat="42.910515870932855" lon="-0.878753657932631"><ele>911.3333333333334</ele><time>2026-03-31T14:04:09Z</time></trkpt><trkpt lat="42.91066302556682" lon="-0.8785535633609375"><ele>911.0</ele><time>2026-03-31T14:04:10Z</time></trkpt><trkpt lat="42.9108102226129" lon="-0.8783548807016767"><ele>914.6666666666667</ele><time>2026-03-31T14:04:11Z</time></trkpt><trkpt lat="42.910958662106935" lon="-0.878156542592614"><ele>918.3333333333333</ele><time>2026-03-31T14:04:12Z</time></trkpt><trkpt lat="42.91110775551413" lon="-0.8779611931370731"><ele>922.0</ele><time>2026-03-31T14:04:13Z</time></trkpt><trkpt lat="42.91125619839879" lon="-0.8777653588150353"><ele>919.6666666666666</ele><time>2026-03-31T14:04:14Z</time></trkpt><trkpt lat="42.911404351728585" lon="-0.8775673524647882"><ele>917.3333333333333</ele><time>2026-03-31T14:04:15Z</time></trkpt><trkpt lat="42.91155544241389" lon="-0.8773662944791039"><ele>915.0</ele><time>2026-03-31T14:04:16Z</time></trkpt><trkpt lat="42.91171407878426" lon="-0.8771648787615292"><ele>915.3333333333333</ele><time>2026-03-31T14:04:17Z</time></trkpt><trkpt lat="42.91187465489603" lon="-0.8769666007396486"><ele>915.6666666666666</ele><time>2026-03-31T14:04:18Z</time></trkpt><trkpt lat="42.91203736376713" lon="-0.8767750613303164"><ele>916.0</ele><time>2026-03-31T14:04:19Z</time></trkpt><trkpt lat="42.91220025475114" lon="-0.876588657796514"><ele>916.0</ele><time>2026-03-31T14:04:20Z</time></trkpt><trkpt lat="42.91235825615562" lon="-0.8764174621631213"><ele>916.0</ele><time>2026-03-31T14:04:21Z</time></trkpt><trkpt lat="42.912505135378076" lon="-0.8762644651380136"><ele>916.0</ele><time>2026-03-31T14:04:22Z</time></trkpt><trkpt lat="42.91263890185624" lon="-0.8761245825718704"><ele>916.0</ele><time>2026-03-31T14:04:23Z</time></trkpt><trkpt lat="42.912778595189074" lon="-0.8759964107060328"><ele>916.0</ele><time>2026-03-31T14:04:24Z</time></trkpt><trkpt lat="42.91292953827711" lon="-0.8758995977861322"><ele>916.0</ele><time>2026-03-31T14:04:25Z</time></trkpt><trkpt lat="42.91308967820173" lon="-0.8758493324341456"><ele>916.0</ele><time>2026-03-31T14:04:26Z</time></trkpt><trkpt lat="42.91325762965247" lon="-0.8758468594169972"><ele>916.0</ele><time>2026-03-31T14:04:27Z</time></trkpt><trkpt lat="42.913434793134584" lon="-0.8758756695733022"><ele>916.0</ele><time>2026-03-31T14:04:28Z</time></trkpt><trkpt lat="42.91362426744192" lon="-0.8759174431709965"><ele>919.3333333333333</ele><time>2026-03-31T14:04:29Z</time></trkpt><trkpt lat="42.913808984818694" lon="-0.8759538093037359"><ele>922.6666666666667</ele><time>2026-03-31T14:04:30Z</time></trkpt><trkpt lat="42.913984517463184" lon="-0.8759825659040932"><ele>926.0</ele><time>2026-03-31T14:04:31Z</time></trkpt><trkpt lat="42.91416139915716" lon="-0.8760084195143443"><ele>930.6666666666667</ele><time>2026-03-31T14:04:32Z</time></trkpt><trkpt lat="42.914339995324724" lon="-0.8760247616936889"><ele>935.3333333333333</ele><time>2026-03-31T14:04:33Z</time></trkpt><trkpt lat="42.914518657348175" lon="-0.8760393408612579"><ele>940.0</ele><time>2026-03-31T14:04:34Z</time></trkpt><trkpt lat="42.914697013376994" lon="-0.8760379554546392"><ele>940.0</ele><time>2026-03-31T14:04:35Z</time></trkpt><trkpt lat="42.91486469621669" lon="-0.8759852316038784"><ele>940.0</ele><time>2026-03-31T14:04:36Z</time></trkpt><trkpt lat="42.91501469898451" lon="-0.8758639905145936"><ele>940.0</ele><time>2026-03-31T14:04:37Z</time></trkpt><trkpt lat="42.91514991581706" lon="-0.8756921735715811"><ele>935.6666666666666</ele><time>2026-03-31T14:04:38Z</time></trkpt><trkpt lat="42.91526561084087" lon="-0.8754881316406254"><ele>931.3333333333333</ele><time>2026-03-31T14:04:39Z</time></trkpt><trkpt lat="42.91536122389" lon="-0.8752636154516854"><ele>927.0</ele><time>2026-03-31T14:04:40Z</time></trkpt><trkpt lat="42.91543803566205" lon="-0.8750495510972549"><ele>925.0</ele><time>2026-03-31T14:04:41Z</time></trkpt><trkpt lat="42.915534523737875" lon="-0.8748552877002224"><ele>923.0</ele><time>2026-03-31T14:04:42Z</time></trkpt><trkpt lat="42.91567058823118" lon="-0.8746877942848973"><ele>921.0</ele><time>2026-03-31T14:04:43Z</time></trkpt><trkpt lat="42.91583626674703" lon="-0.8745421339882118"><ele>922.3333333333333</ele><time>2026-03-31T14:04:44Z</time></trkpt><trkpt lat="42.916018500691855" lon="-0.8744029669025152"><ele>923.6666666666666</ele><time>2026-03-31T14:04:45Z</time></trkpt><trkpt lat="42.91620352602879" lon="-0.874249887041261"><ele>925.0</ele><time>2026-03-31T14:04:46Z</time></trkpt><trkpt lat="42.9163876946805" lon="-0.8740865764622275"><ele>925.0</ele><time>2026-03-31T14:04:47Z</time></trkpt><trkpt lat="42.916570674054505" lon="-0.8739259412738654"><ele>925.0</ele><time>2026-03-31T14:04:48Z</time></trkpt><trkpt lat="42.91675331317399" lon="-0.8737597787170756"><ele>925.0</ele><time>2026-03-31T14:04:49Z</time></trkpt><trkpt lat="42.916923345253515" lon="-0.8735797049390603"><ele>926.3333333333333</ele><time>2026-03-31T14:04:50Z</time></trkpt><trkpt lat="42.91707585387816" lon="-0.8733894718691507"><ele>927.6666666666667</ele><time>2026-03-31T14:04:51Z</time></trkpt><trkpt lat="42.91720602386959" lon="-0.8732070324406702"><ele>929.0</ele><time>2026-03-31T14:04:52Z</time></trkpt><trkpt lat="42.91732989561399" lon="-0.8730457544126965"><ele>929.0</ele><time>2026-03-31T14:04:53Z</time></trkpt><trkpt lat="42.91746772007161" lon="-0.8729211457300113"><ele>929.0</ele><time>2026-03-31T14:04:54Z</time></trkpt><trkpt lat="42.9176343018911" lon="-0.8728359411600187"><ele>929.0</ele><time>2026-03-31T14:04:55Z</time></trkpt><trkpt lat="42.91781688093775" lon="-0.8727940111188336"><ele>931.6666666666667</ele><time>2026-03-31T14:04:56Z</time></trkpt><trkpt lat="42.91801491209736" lon="-0.87276399428841"><ele>934.3333333333333</ele><time>2026-03-31T14:04:57Z</time></trkpt><trkpt lat="42.91821792217862" lon="-0.872697300724745"><ele>937.0</ele><time>2026-03-31T14:04:58Z</time></trkpt><trkpt lat="42.91840824970348" lon="-0.87257304583855"><ele>931.3333333333333</ele><time>2026-03-31T14:04:59Z</time></trkpt><trkpt lat="42.91858755437297" lon="-0.8724182911147941"><ele>925.6666666666667</ele><time>2026-03-31T14:05:00Z</time></trkpt><trkpt lat="42.918764753221474" lon="-0.8722569879905208"><ele>920.0</ele><time>2026-03-31T14:05:01Z</time></trkpt><trkpt lat="42.91894123144623" lon="-0.8721013361194796"><ele>920.0</ele><time>2026-03-31T14:05:02Z</time></trkpt><trkpt lat="42.919114370519615" lon="-0.8719448977275206"><ele>920.0</ele><time>2026-03-31T14:05:03Z</time></trkpt><trkpt lat="42.91928598850897" lon="-0.8717922600297983"><ele>920.0</ele><time>2026-03-31T14:05:04Z</time></trkpt><trkpt lat="42.91945846231077" lon="-0.8716438390608078"><ele>920.3333333333334</ele><time>2026-03-31T14:05:05Z</time></trkpt><trkpt lat="42.91963271915557" lon="-0.8714978576948161"><ele>920.6666666666667</ele><time>2026-03-31T14:05:06Z</time></trkpt><trkpt lat="42.91980748089062" lon="-0.8713493029122451"><ele>921.0</ele><time>2026-03-31T14:05:07Z</time></trkpt><trkpt lat="42.91998376726527" lon="-0.8712089780918291"><ele>922.6666666666667</ele><time>2026-03-31T14:05:08Z</time></trkpt><trkpt lat="42.92017305784664" lon="-0.8710852751236696"><ele>924.3333333333334</ele><time>2026-03-31T14:05:09Z</time></trkpt><trkpt lat="42.92037060144805" lon="-0.8709885022289906"><ele>926.0</ele><time>2026-03-31T14:05:10Z</time></trkpt><trkpt lat="42.920574483623945" lon="-0.8709090969212996"><ele>926.0</ele><time>2026-03-31T14:05:11Z</time></trkpt><trkpt lat="42.92077914205307" lon="-0.8708326448679603"><ele>926.0</ele><time>2026-03-31T14:05:12Z</time></trkpt><trkpt lat="42.920981657771264" lon="-0.8707543169651459"><ele>926.0</ele><time>2026-03-31T14:05:13Z</time></trkpt><trkpt lat="42.92117952332705" lon="-0.8706696172080117"><ele>927.0</ele><time>2026-03-31T14:05:14Z</time></trkpt><trkpt lat="42.92137032864776" lon="-0.8705624964463408"><ele>928.0</ele><time>2026-03-31T14:05:15Z</time></trkpt><trkpt lat="42.92155636157567" lon="-0.8704410827440645"><ele>929.0</ele><time>2026-03-31T14:05:16Z</time></trkpt><trkpt lat="42.92173113969687" lon="-0.8702988853897702"><ele>928.6666666666667</ele><time>2026-03-31T14:05:17Z</time></trkpt><trkpt lat="42.92188312899168" lon="-0.8701543798919826"><ele>928.3333333333333</ele><time>2026-03-31T14:05:18Z</time></trkpt><trkpt lat="42.92201569479258" lon="-0.8700208181023169"><ele>928.0</ele><time>2026-03-31T14:05:19Z</time></trkpt><trkpt lat="42.92212988405435" lon="-0.8698930972654726"><ele>928.0</ele><time>2026-03-31T14:05:20Z</time></trkpt><trkpt lat="42.9222384428574" lon="-0.8697666305348122"><ele>928.0</ele><time>2026-03-31T14:05:21Z</time></trkpt><trkpt lat="42.92234791190553" lon="-0.869644466517998"><ele>928.0</ele><time>2026-03-31T14:05:22Z</time></trkpt><trkpt lat="42.92245595073092" lon="-0.8695236388492842"><ele>928.0</ele><time>2026-03-31T14:05:23Z</time></trkpt><trkpt lat="42.92256769685709" lon="-0.869399985290962"><ele>928.5</ele><time>2026-03-31T14:05:24Z</time></trkpt><trkpt lat="42.922681781928205" lon="-0.8692780088989582"><ele>929.0</ele><time>2026-03-31T14:05:25Z</time></trkpt><trkpt lat="42.922792305821886" lon="-0.8691572365107296"><ele>929.5</ele><time>2026-03-31T14:05:26Z</time></trkpt><trkpt lat="42.92289770974193" lon="-0.8690365257989624"><ele>930.0</ele><time>2026-03-31T14:05:27Z</time></trkpt><trkpt lat="42.92300630049213" lon="-0.8689192825381087"><ele>930.0</ele><time>2026-03-31T14:05:28Z</time></trkpt><trkpt lat="42.92311876426975" lon="-0.8687948568140065"><ele>930.0</ele><time>2026-03-31T14:05:29Z</time></trkpt><trkpt lat="42.923234313201874" lon="-0.8686632928326178"><ele>930.0</ele><time>2026-03-31T14:05:30Z</time></trkpt><trkpt lat="42.92335078777394" lon="-0.8685284638413615"><ele>930.0</ele><time>2026-03-31T14:05:31Z</time></trkpt><trkpt lat="42.92347376818608" lon="-0.8683910130260658"><ele>930.3333333333333</ele><time>2026-03-31T14:05:32Z</time></trkpt><trkpt lat="42.92360690740176" lon="-0.8682462642814232"><ele>930.6666666666666</ele><time>2026-03-31T14:05:33Z</time></trkpt><trkpt lat="42.92374699938152" lon="-0.8680940809317019"><ele>931.0</ele><time>2026-03-31T14:05:34Z</time></trkpt><trkpt lat="42.92389042905479" lon="-0.8679343019961526"><ele>931.0</ele><time>2026-03-31T14:05:35Z</time></trkpt><trkpt lat="42.92403559476902" lon="-0.867769403498445"><ele>931.0</ele><time>2026-03-31T14:05:36Z</time></trkpt><trkpt lat="42.92418359828435" lon="-0.8676047735426763"><ele>931.0</ele><time>2026-03-31T14:05:37Z</time></trkpt><trkpt lat="42.9243345474791" lon="-0.8674392904596856"><ele>931.3333333333333</ele><time>2026-03-31T14:05:38Z</time></trkpt><trkpt lat="42.924489619511284" lon="-0.8672682996017813"><ele>931.6666666666667</ele><time>2026-03-31T14:05:39Z</time></trkpt><trkpt lat="42.92464813182491" lon="-0.8670965791432015"><ele>932.0</ele><time>2026-03-31T14:05:40Z</time></trkpt><trkpt lat="42.92480925254975" lon="-0.8669224219296241"><ele>931.3333333333334</ele><time>2026-03-31T14:05:41Z</time></trkpt><trkpt lat="42.924964844731555" lon="-0.8667433955011118"><ele>930.6666666666667</ele><time>2026-03-31T14:05:42Z</time></trkpt><trkpt lat="42.92511559574384" lon="-0.8665660967501131"><ele>930.0</ele><time>2026-03-31T14:05:43Z</time></trkpt><trkpt lat="42.925253450715694" lon="-0.8663988067240795"><ele>931.6666666666667</ele><time>2026-03-31T14:05:44Z</time></trkpt><trkpt lat="42.9253739028474" lon="-0.8662352175758413"><ele>933.3333333333334</ele><time>2026-03-31T14:05:45Z</time></trkpt><trkpt lat="42.92547617914835" lon="-0.8660781012498386"><ele>935.0</ele><time>2026-03-31T14:05:46Z</time></trkpt><trkpt lat="42.92555873602794" lon="-0.8659256665918602"><ele>935.0000000000001</ele><time>2026-03-31T14:05:47Z</time></trkpt><trkpt lat="42.9256261800947" lon="-0.8657810898424837"><ele>935.0</ele><time>2026-03-31T14:05:48Z</time></trkpt><trkpt lat="42.92568076584519" lon="-0.8656625969630362"><ele>935.0</ele><time>2026-03-31T14:05:49Z</time></trkpt><trkpt lat="42.92571875514733" lon="-0.8655655588203666"><ele>935.0</ele><time>2026-03-31T14:05:50Z</time></trkpt><trkpt lat="42.92575388679168" lon="-0.865480880525478"><ele>935.0000000000001</ele><time>2026-03-31T14:05:51Z</time></trkpt><trkpt lat="42.92578980847791" lon="-0.8654005920348792"><ele>935.0</ele><time>2026-03-31T14:05:53Z</time></trkpt><trkpt lat="42.925840615338245" lon="-0.8652554551574894"><ele>937.0</ele><time>2026-03-31T14:06:47Z</time></trkpt><trkpt lat="42.92590499176159" lon="-0.8650956561749406"><ele>939.0</ele><time>2026-03-31T14:06:48Z</time></trkpt><trkpt lat="42.92598148235621" lon="-0.8649022827330324"><ele>941.0</ele><time>2026-03-31T14:06:49Z</time></trkpt><trkpt lat="42.92605431802768" lon="-0.8646760391601914"><ele>941.0</ele><time>2026-03-31T14:06:50Z</time></trkpt><trkpt lat="42.92612772252969" lon="-0.8644276116112674"><ele>941.0</ele><time>2026-03-31T14:06:51Z</time></trkpt><trkpt lat="42.92621032422132" lon="-0.8641603366052389"><ele>941.0</ele><time>2026-03-31T14:06:52Z</time></trkpt><trkpt lat="42.92629676303204" lon="-0.8639082125248414"><ele>941.0</ele><time>2026-03-31T14:06:53Z</time></trkpt><trkpt lat="42.92636439209754" lon="-0.8636371291631905"><ele>941.0</ele><time>2026-03-31T14:06:54Z</time></trkpt><trkpt lat="42.92644355294565" lon="-0.8633702811132685"><ele>941.0</ele><time>2026-03-31T14:06:55Z</time></trkpt><trkpt lat="42.9265208273648" lon="-0.8631097918838099"><ele>940.0</ele><time>2026-03-31T14:06:56Z</time></trkpt><trkpt lat="42.926610766659486" lon="-0.8628123200329795"><ele>939.0</ele><time>2026-03-31T14:06:57Z</time></trkpt><trkpt lat="42.92669333373312" lon="-0.8625336231854902"><ele>939.6666666666667</ele><time>2026-03-31T14:06:58Z</time></trkpt><trkpt lat="42.92677554347958" lon="-0.8622560438323651"><ele>940.3333333333334</ele><time>2026-03-31T14:06:59Z</time></trkpt><trkpt lat="42.92685839928481" lon="-0.8619752303232739"><ele>941.0</ele><time>2026-03-31T14:07:00Z</time></trkpt><trkpt lat="42.92694232452975" lon="-0.8616960754401439"><ele>941.0</ele><time>2026-03-31T14:07:01Z</time></trkpt><trkpt lat="42.92702446235226" lon="-0.8614210856822342"><ele>941.0</ele><time>2026-03-31T14:07:02Z</time></trkpt><trkpt lat="42.92710654489978" lon="-0.8611454536455247"><ele>941.0</ele><time>2026-03-31T14:07:03Z</time></trkpt><trkpt lat="42.92718697883161" lon="-0.8608709202890577"><ele>940.3333333333334</ele><time>2026-03-31T14:07:04Z</time></trkpt><trkpt lat="42.927265459357514" lon="-0.8606024731747495"><ele>939.6666666666667</ele><time>2026-03-31T14:07:05Z</time></trkpt><trkpt lat="42.92734150641168" lon="-0.8603598123349213"><ele>939.0</ele><time>2026-03-31T14:07:06Z</time></trkpt><trkpt lat="42.92742420760421" lon="-0.8601312619009231"><ele>939.0</ele><time>2026-03-31T14:07:07Z</time></trkpt><trkpt lat="42.92751385233122" lon="-0.8598981100004263"><ele>939.0</ele><time>2026-03-31T14:07:08Z</time></trkpt><trkpt lat="42.92762782907318" lon="-0.859679294349691"><ele>939.0</ele><time>2026-03-31T14:07:09Z</time></trkpt><trkpt lat="42.92776533750732" lon="-0.8594773118270906"><ele>939.0</ele><time>2026-03-31T14:07:10Z</time></trkpt><trkpt lat="42.927918109272404" lon="-0.8592999442279786"><ele>939.0</ele><time>2026-03-31T14:07:11Z</time></trkpt><trkpt lat="42.92808016319884" lon="-0.8591416856689816"><ele>939.0</ele><time>2026-03-31T14:07:12Z</time></trkpt><trkpt lat="42.92823990864287" lon="-0.8589807943280242"><ele>939.0</ele><time>2026-03-31T14:07:13Z</time></trkpt><trkpt lat="42.928368519410576" lon="-0.8587983981888219"><ele>939.0</ele><time>2026-03-31T14:07:14Z</time></trkpt><trkpt lat="42.92846709338689" lon="-0.8585910299004453"><ele>939.0</ele><time>2026-03-31T14:07:15Z</time></trkpt><trkpt lat="42.92853143186051" lon="-0.858352251920496"><ele>939.0</ele><time>2026-03-31T14:07:16Z</time></trkpt><trkpt lat="42.92855870414448" lon="-0.8580925675497404"><ele>939.0</ele><time>2026-03-31T14:07:17Z</time></trkpt><trkpt lat="42.92854108122584" lon="-0.857801843817831"><ele>939.0</ele><time>2026-03-31T14:07:18Z</time></trkpt><trkpt lat="42.92856873902436" lon="-0.8574910446670273"><ele>939.0</ele><time>2026-03-31T14:07:19Z</time></trkpt><trkpt lat="42.92859969172244" lon="-0.8571798711524335"><ele>939.0</ele><time>2026-03-31T14:07:20Z</time></trkpt><trkpt lat="42.9286354328692" lon="-0.8568865828808021"><ele>939.0</ele><time>2026-03-31T14:07:21Z</time></trkpt><trkpt lat="42.928673510969254" lon="-0.8565921718980426"><ele>939.6666666666667</ele><time>2026-03-31T14:07:22Z</time></trkpt><trkpt lat="42.92871125240388" lon="-0.8563009411513425"><ele>940.3333333333334</ele><time>2026-03-31T14:07:23Z</time></trkpt><trkpt lat="42.92875566244156" lon="-0.8560068571542472"><ele>941.0</ele><time>2026-03-31T14:07:24Z</time></trkpt><trkpt lat="42.92880718179986" lon="-0.8557188269232918"><ele>942.0</ele><time>2026-03-31T14:07:25Z</time></trkpt><trkpt lat="42.92887096699512" lon="-0.8554274708714095"><ele>943.0</ele><time>2026-03-31T14:07:26Z</time></trkpt><trkpt lat="42.928939229719425" lon="-0.8551330453128222"><ele>944.0</ele><time>2026-03-31T14:07:27Z</time></trkpt><trkpt lat="42.92900829808899" lon="-0.8548340209960107"><ele>944.5</ele><time>2026-03-31T14:07:28Z</time></trkpt><trkpt lat="42.92908108079079" lon="-0.8545348971487419"><ele>945.0</ele><time>2026-03-31T14:07:29Z</time></trkpt><trkpt lat="42.92915717487184" lon="-0.8542354136104999"><ele>946.5</ele><time>2026-03-31T14:07:30Z</time></trkpt><trkpt lat="42.92923867598328" lon="-0.8539405486421596"><ele>948.0</ele><time>2026-03-31T14:07:31Z</time></trkpt><trkpt lat="42.92932955792557" lon="-0.853643186082318"><ele>948.5</ele><time>2026-03-31T14:07:32Z</time></trkpt><trkpt lat="42.92942391280988" lon="-0.853352094282547"><ele>949.0</ele><time>2026-03-31T14:07:33Z</time></trkpt><trkpt lat="42.929522441996745" lon="-0.8530613431071501"><ele>949.0</ele><time>2026-03-31T14:07:34Z</time></trkpt><trkpt lat="42.92961947812941" lon="-0.8527697635177531"><ele>949.0</ele><time>2026-03-31T14:07:35Z</time></trkpt><trkpt lat="42.92971375063079" lon="-0.8524774733174492"><ele>949.5</ele><time>2026-03-31T14:07:36Z</time></trkpt><trkpt lat="42.929808081030465" lon="-0.8521901517572474"><ele>950.0</ele><time>2026-03-31T14:07:37Z</time></trkpt><trkpt lat="42.92990548033704" lon="-0.8519008664499534"><ele>953.0</ele><time>2026-03-31T14:07:38Z</time></trkpt><trkpt lat="42.9300004187528" lon="-0.851621381598937"><ele>956.0</ele><time>2026-03-31T14:07:39Z</time></trkpt><trkpt lat="42.93010530285401" lon="-0.851345571863261"><ele>958.0</ele><time>2026-03-31T14:07:40Z</time></trkpt><trkpt lat="42.93019988374808" lon="-0.8510624826824251"><ele>960.0</ele><time>2026-03-31T14:07:41Z</time></trkpt><trkpt lat="42.93032428416437" lon="-0.8508038142805043"><ele>961.3333333333333</ele><time>2026-03-31T14:07:42Z</time></trkpt><trkpt lat="42.930408861457614" lon="-0.8505225419891032"><ele>962.6666666666666</ele><time>2026-03-31T14:07:43Z</time></trkpt><trkpt lat="42.9304972710277" lon="-0.8502447249138878"><ele>964.0</ele><time>2026-03-31T14:07:44Z</time></trkpt><trkpt lat="42.93058285006804" lon="-0.8499660300501789"><ele>964.0</ele><time>2026-03-31T14:07:45Z</time></trkpt><trkpt lat="42.930616237519466" lon="-0.8496725748914319"><ele>964.0</ele><time>2026-03-31T14:07:46Z</time></trkpt><trkpt lat="42.93065393454391" lon="-0.8493799775445499"><ele>964.0</ele><time>2026-03-31T14:07:47Z</time></trkpt><trkpt lat="42.93068684774111" lon="-0.849083893804281"><ele>963.3333333333333</ele><time>2026-03-31T14:07:48Z</time></trkpt><trkpt lat="42.93073559954802" lon="-0.8487818049545393"><ele>962.6666666666667</ele><time>2026-03-31T14:07:49Z</time></trkpt><trkpt lat="42.930767480632824" lon="-0.8484803581474966"><ele>962.0</ele><time>2026-03-31T14:07:50Z</time></trkpt><trkpt lat="42.930783661996045" lon="-0.8481794555399385"><ele>962.0</ele><time>2026-03-31T14:07:51Z</time></trkpt><trkpt lat="42.93083143003736" lon="-0.8478893249529708"><ele>962.0</ele><time>2026-03-31T14:07:52Z</time></trkpt><trkpt lat="42.930860793331355" lon="-0.8475970593177712"><ele>962.0</ele><time>2026-03-31T14:07:53Z</time></trkpt><trkpt lat="42.930892546493496" lon="-0.8473123733175814"><ele>962.6666666666667</ele><time>2026-03-31T14:07:54Z</time></trkpt><trkpt lat="42.930927399716744" lon="-0.8470254224879037"><ele>963.3333333333333</ele><time>2026-03-31T14:07:55Z</time></trkpt><trkpt lat="42.930957709704536" lon="-0.8467415615548043"><ele>964.0</ele><time>2026-03-31T14:07:56Z</time></trkpt><trkpt lat="42.93097834409579" lon="-0.846446018984286"><ele>965.0</ele><time>2026-03-31T14:07:57Z</time></trkpt><trkpt lat="42.930987032111645" lon="-0.8461464699879857"><ele>966.0</ele><time>2026-03-31T14:07:58Z</time></trkpt><trkpt lat="42.9309872381774" lon="-0.8458543453365847"><ele>967.0</ele><time>2026-03-31T14:07:59Z</time></trkpt><trkpt lat="42.9309863104853" lon="-0.8455751637345917"><ele>968.0</ele><time>2026-03-31T14:08:00Z</time></trkpt><trkpt lat="42.9309866883976" lon="-0.8453190346621967"><ele>969.0</ele><time>2026-03-31T14:08:01Z</time></trkpt><trkpt lat="42.93098750422027" lon="-0.8450677305211364"><ele>970.0</ele><time>2026-03-31T14:08:02Z</time></trkpt><trkpt lat="42.93099424337091" lon="-0.8448078074069323"><ele>971.0</ele><time>2026-03-31T14:08:03Z</time></trkpt><trkpt lat="42.93100800849551" lon="-0.844536227334117"><ele>972.0</ele><time>2026-03-31T14:08:04Z</time></trkpt><trkpt lat="42.931036183477076" lon="-0.8442583680851918"><ele>973.0</ele><time>2026-03-31T14:08:05Z</time></trkpt><trkpt lat="42.93107525341839" lon="-0.8439667121252219"><ele>973.5</ele><time>2026-03-31T14:08:06Z</time></trkpt><trkpt lat="42.931123920364826" lon="-0.843660117414898"><ele>974.0</ele><time>2026-03-31T14:08:07Z</time></trkpt><trkpt lat="42.9311778588714" lon="-0.8433562322793846"><ele>975.0</ele><time>2026-03-31T14:08:08Z</time></trkpt><trkpt lat="42.93123034414149" lon="-0.843051348065632"><ele>976.0</ele><time>2026-03-31T14:08:09Z</time></trkpt><trkpt lat="42.931282040759534" lon="-0.8427439813759284"><ele>978.0</ele><time>2026-03-31T14:08:10Z</time></trkpt><trkpt lat="42.93133388439919" lon="-0.8424378104745759"><ele>980.0</ele><time>2026-03-31T14:08:11Z</time></trkpt><trkpt lat="42.93139067221291" lon="-0.8421314094130656"><ele>980.0</ele><time>2026-03-31T14:08:12Z</time></trkpt><trkpt lat="42.93144894351678" lon="-0.8418279877103905"><ele>980.0</ele><time>2026-03-31T14:08:13Z</time></trkpt><trkpt lat="42.931503672906395" lon="-0.8415174797745706"><ele>980.0</ele><time>2026-03-31T14:08:14Z</time></trkpt><trkpt lat="42.931557218696554" lon="-0.8412026201863966"><ele>980.0</ele><time>2026-03-31T14:08:15Z</time></trkpt><trkpt lat="42.93161207245993" lon="-0.8408870209428653"><ele>981.5</ele><time>2026-03-31T14:08:16Z</time></trkpt><trkpt lat="42.93166497685756" lon="-0.8405692640720771"><ele>983.0</ele><time>2026-03-31T14:08:17Z</time></trkpt><trkpt lat="42.93171573797685" lon="-0.8402494327237297"><ele>982.5</ele><time>2026-03-31T14:08:18Z</time></trkpt><trkpt lat="42.93176957080513" lon="-0.8399328811041264"><ele>982.0</ele><time>2026-03-31T14:08:19Z</time></trkpt><trkpt lat="42.93182487659836" lon="-0.8396119971983881"><ele>983.0</ele><time>2026-03-31T14:08:20Z</time></trkpt><trkpt lat="42.93188202087335" lon="-0.8392927212232223"><ele>984.0</ele><time>2026-03-31T14:08:21Z</time></trkpt><trkpt lat="42.93193909625517" lon="-0.8389755212665404"><ele>984.0</ele><time>2026-03-31T14:08:22Z</time></trkpt><trkpt lat="42.93199621722501" lon="-0.8386566003126981"><ele>984.0</ele><time>2026-03-31T14:08:23Z</time></trkpt><trkpt lat="42.93205128445178" lon="-0.8383383616009656"><ele>985.5</ele><time>2026-03-31T14:08:24Z</time></trkpt><trkpt lat="42.932104096119645" lon="-0.8380215189169856"><ele>987.0</ele><time>2026-03-31T14:08:25Z</time></trkpt><trkpt lat="42.93215756155035" lon="-0.8377039502567171"><ele>988.0</ele><time>2026-03-31T14:08:26Z</time></trkpt><trkpt lat="42.93220884161489" lon="-0.8373898474531163"><ele>989.0</ele><time>2026-03-31T14:08:27Z</time></trkpt><trkpt lat="42.932264202645094" lon="-0.8370824778897672"><ele>991.0</ele><time>2026-03-31T14:08:28Z</time></trkpt><trkpt lat="42.9323180326793" lon="-0.8367767830384572"><ele>993.0</ele><time>2026-03-31T14:08:29Z</time></trkpt><trkpt lat="42.93237282999605" lon="-0.8364762587345028"><ele>993.0</ele><time>2026-03-31T14:08:30Z</time></trkpt><trkpt lat="42.93242175935683" lon="-0.8361809776482753"><ele>993.0</ele><time>2026-03-31T14:08:31Z</time></trkpt><trkpt lat="42.93247623414553" lon="-0.8359059226733652"><ele>993.0</ele><time>2026-03-31T14:08:32Z</time></trkpt><trkpt lat="42.93252884722468" lon="-0.8356499227104224"><ele>993.0</ele><time>2026-03-31T14:08:33Z</time></trkpt><trkpt lat="42.93259046300072" lon="-0.8353966398086656"><ele>993.0</ele><time>2026-03-31T14:08:34Z</time></trkpt><trkpt lat="42.932666812054066" lon="-0.8351598476851597"><ele>993.0</ele><time>2026-03-31T14:08:35Z</time></trkpt><trkpt lat="42.9327605812499" lon="-0.8349436917152001"><ele>995.0</ele><time>2026-03-31T14:08:36Z</time></trkpt><trkpt lat="42.932861251586324" lon="-0.8347461598937505"><ele>997.0</ele><time>2026-03-31T14:08:37Z</time></trkpt><trkpt lat="42.93297430562791" lon="-0.8345548299160419"><ele>999.0</ele><time>2026-03-31T14:08:38Z</time></trkpt><trkpt lat="42.93310321964959" lon="-0.8343715115815492"><ele>998.3333333333333</ele><time>2026-03-31T14:08:39Z</time></trkpt><trkpt lat="42.933243478778216" lon="-0.8341919555237093"><ele>997.6666666666666</ele><time>2026-03-31T14:08:40Z</time></trkpt><trkpt lat="42.93338938194169" lon="-0.8340111371812267"><ele>997.0</ele><time>2026-03-31T14:08:41Z</time></trkpt><trkpt lat="42.93353642587013" lon="-0.8338271612661029"><ele>996.6666666666666</ele><time>2026-03-31T14:08:42Z</time></trkpt><trkpt lat="42.933688618258884" lon="-0.8336405639980299"><ele>996.3333333333333</ele><time>2026-03-31T14:08:43Z</time></trkpt><trkpt lat="42.9338432565269" lon="-0.8334537835273594"><ele>996.0</ele><time>2026-03-31T14:08:44Z</time></trkpt><trkpt lat="42.93398844681507" lon="-0.83327497723359"><ele>996.0</ele><time>2026-03-31T14:08:45Z</time></trkpt><trkpt lat="42.934123772678944" lon="-0.8331119475271287"><ele>996.0</ele><time>2026-03-31T14:08:46Z</time></trkpt><trkpt lat="42.93425354476444" lon="-0.8329703320715615"><ele>996.0</ele><time>2026-03-31T14:08:47Z</time></trkpt><trkpt lat="42.93438904431008" lon="-0.8328566354152002"><ele>996.0</ele><time>2026-03-31T14:08:48Z</time></trkpt><trkpt lat="42.934547257722784" lon="-0.8327750252350554"><ele>996.0</ele><time>2026-03-31T14:08:49Z</time></trkpt><trkpt lat="42.93472714804728" lon="-0.8327300708353301"><ele>996.0</ele><time>2026-03-31T14:08:50Z</time></trkpt><trkpt lat="42.9349147332948" lon="-0.8327225217835484"><ele>1012.3333333333333</ele><time>2026-03-31T14:08:51Z</time></trkpt><trkpt lat="42.93509780844809" lon="-0.8327403704296522"><ele>1028.6666666666665</ele><time>2026-03-31T14:08:52Z</time></trkpt><trkpt lat="42.93525697758358" lon="-0.832764834797016"><ele>1045.0</ele><time>2026-03-31T14:08:53Z</time></trkpt><trkpt lat="42.93540007024806" lon="-0.8328163126135338"><ele>1045.0</ele><time>2026-03-31T14:08:54Z</time></trkpt><trkpt lat="42.935527550014285" lon="-0.8329213081161959"><ele>1045.0</ele><time>2026-03-31T14:08:55Z</time></trkpt><trkpt lat="42.935633030126404" lon="-0.8330868147991466"><ele>1045.0</ele><time>2026-03-31T14:08:56Z</time></trkpt><trkpt lat="42.935712955760614" lon="-0.8332979262300658"><ele>1037.3333333333333</ele><time>2026-03-31T14:08:57Z</time></trkpt><trkpt lat="42.93577637283129" lon="-0.8335452493554147"><ele>1029.6666666666667</ele><time>2026-03-31T14:08:58Z</time></trkpt><trkpt lat="42.93583927740526" lon="-0.8338157887363256"><ele>1022.0</ele><time>2026-03-31T14:08:59Z</time></trkpt><trkpt lat="42.93591138017179" lon="-0.8340984390071293"><ele>1043.0</ele><time>2026-03-31T14:09:00Z</time></trkpt><trkpt lat="42.93598706858803" lon="-0.8343816342238156"><ele>1064.0</ele><time>2026-03-31T14:09:01Z</time></trkpt><trkpt lat="42.936065880436665" lon="-0.8346436451662914"><ele>1085.0</ele><time>2026-03-31T14:09:02Z</time></trkpt><trkpt lat="42.93615379011265" lon="-0.8349152097875765"><ele>1079.3333333333335</ele><time>2026-03-31T14:09:03Z</time></trkpt><trkpt lat="42.93624827987375" lon="-0.8351848506852628"><ele>1073.6666666666667</ele><time>2026-03-31T14:09:04Z</time></trkpt><trkpt lat="42.936320582233726" lon="-0.835458743405371"><ele>1068.0</ele><time>2026-03-31T14:09:05Z</time></trkpt><trkpt lat="42.93636683327528" lon="-0.8357473472569757"><ele>1061.6666666666667</ele><time>2026-03-31T14:09:06Z</time></trkpt><trkpt lat="42.93640232713275" lon="-0.8360496297527441"><ele>1055.3333333333335</ele><time>2026-03-31T14:09:07Z</time></trkpt><trkpt lat="42.93643799611119" lon="-0.8363491235088822"><ele>1049.0</ele><time>2026-03-31T14:09:08Z</time></trkpt><trkpt lat="42.93649400235491" lon="-0.8366439399611391"><ele>1043.5</ele><time>2026-03-31T14:09:09Z</time></trkpt><trkpt lat="42.93656374353789" lon="-0.836934453780085"><ele>1038.0</ele><time>2026-03-31T14:09:10Z</time></trkpt><trkpt lat="42.936643675652086" lon="-0.8372241729485306"><ele>1038.0</ele><time>2026-03-31T14:09:11Z</time></trkpt><trkpt lat="42.936710463524825" lon="-0.8375160211657289"><ele>1038.0</ele><time>2026-03-31T14:09:12Z</time></trkpt><trkpt lat="42.93676853141054" lon="-0.8378086981704083"><ele>1038.0</ele><time>2026-03-31T14:09:13Z</time></trkpt><trkpt lat="42.93682208995137" lon="-0.838102221181955"><ele>1049.6666666666667</ele><time>2026-03-31T14:09:14Z</time></trkpt><trkpt lat="42.93687648222331" lon="-0.8383973486872366"><ele>1061.3333333333335</ele><time>2026-03-31T14:09:15Z</time></trkpt><trkpt lat="42.936940136994835" lon="-0.8386928154525384"><ele>1073.0</ele><time>2026-03-31T14:09:16Z</time></trkpt><trkpt lat="42.93701607047413" lon="-0.8389926072649018"><ele>1073.0</ele><time>2026-03-31T14:09:17Z</time></trkpt><trkpt lat="42.93709897617577" lon="-0.8392775330908713"><ele>1073.0</ele><time>2026-03-31T14:09:18Z</time></trkpt><trkpt lat="42.93716896373237" lon="-0.8395732112635869"><ele>1070.0</ele><time>2026-03-31T14:09:19Z</time></trkpt><trkpt lat="42.93721954791712" lon="-0.8398762389154387"><ele>1067.0</ele><time>2026-03-31T14:09:20Z</time></trkpt><trkpt lat="42.937270999658914" lon="-0.8401798517960775"><ele>1065.0</ele><time>2026-03-31T14:09:21Z</time></trkpt><trkpt lat="42.93731874437281" lon="-0.8404840590918298"><ele>1063.0</ele><time>2026-03-31T14:09:22Z</time></trkpt><trkpt lat="42.93736800474233" lon="-0.8407848196022466"><ele>1061.6666666666665</ele><time>2026-03-31T14:09:23Z</time></trkpt><trkpt lat="42.93741654406304" lon="-0.8410835893944486"><ele>1060.3333333333333</ele><time>2026-03-31T14:09:24Z</time></trkpt><trkpt lat="42.93746759260878" lon="-0.8413785322995815"><ele>1059.0</ele><time>2026-03-31T14:09:25Z</time></trkpt><trkpt lat="42.93752091606195" lon="-0.8416623331387798"><ele>1070.3333333333333</ele><time>2026-03-31T14:09:26Z</time></trkpt><trkpt lat="42.93757174809161" lon="-0.8419274980222623"><ele>1081.6666666666665</ele><time>2026-03-31T14:09:27Z</time></trkpt><trkpt lat="42.937636032432444" lon="-0.8421741996717175"><ele>1093.0</ele><time>2026-03-31T14:09:28Z</time></trkpt><trkpt lat="42.937727117226636" lon="-0.8423819545963294"><ele>1093.0</ele><time>2026-03-31T14:09:29Z</time></trkpt><trkpt lat="42.93780111239602" lon="-0.8425738458743137"><ele>1093.0</ele><time>2026-03-31T14:09:30Z</time></trkpt><trkpt lat="42.93784565866363" lon="-0.8427928995791173"><ele>1093.0</ele><time>2026-03-31T14:09:31Z</time></trkpt><trkpt lat="42.93784985711199" lon="-0.8430229656926044"><ele>1094.3333333333333</ele><time>2026-03-31T14:09:32Z</time></trkpt><trkpt lat="42.937820916451365" lon="-0.8432582967184223"><ele>1095.6666666666667</ele><time>2026-03-31T14:09:33Z</time></trkpt><trkpt lat="42.93776398145511" lon="-0.8434748514733679"><ele>1097.0</ele><time>2026-03-31T14:09:34Z</time></trkpt><trkpt lat="42.93768848224309" lon="-0.8436705328044604"><ele>1100.25</ele><time>2026-03-31T14:09:35Z</time></trkpt><trkpt lat="42.937619103555754" lon="-0.843857616354087"><ele>1103.5</ele><time>2026-03-31T14:09:36Z</time></trkpt><trkpt lat="42.93755631746371" lon="-0.8440378105093478"><ele>1106.75</ele><time>2026-03-31T14:09:37Z</time></trkpt><trkpt lat="42.9375162545994" lon="-0.8442176373524359"><ele>1110.0</ele><time>2026-03-31T14:09:38Z</time></trkpt><trkpt lat="42.93748911333492" lon="-0.8444064970874553"><ele>1104.75</ele><time>2026-03-31T14:09:39Z</time></trkpt><trkpt lat="42.937479043177284" lon="-0.8445975713878657"><ele>1099.5</ele><time>2026-03-31T14:09:40Z</time></trkpt><trkpt lat="42.93748098211895" lon="-0.8447954494934995"><ele>1094.25</ele><time>2026-03-31T14:09:41Z</time></trkpt><trkpt lat="42.9374863412094" lon="-0.8449992071548142"><ele>1089.0</ele><time>2026-03-31T14:09:42Z</time></trkpt><trkpt lat="42.93749735359344" lon="-0.8452105279681916"><ele>1089.0</ele><time>2026-03-31T14:09:43Z</time></trkpt><trkpt lat="42.93750447564539" lon="-0.8454473513496248"><ele>1089.0</ele><time>2026-03-31T14:09:44Z</time></trkpt><trkpt lat="42.93751196989727" lon="-0.8457051355819829"><ele>1089.0</ele><time>2026-03-31T14:09:45Z</time></trkpt><trkpt lat="42.937505482159914" lon="-0.8459622983104297"><ele>1091.6666666666667</ele><time>2026-03-31T14:09:46Z</time></trkpt><trkpt lat="42.93750551295091" lon="-0.846225995332705"><ele>1094.3333333333335</ele><time>2026-03-31T14:09:47Z</time></trkpt><trkpt lat="42.93750297148118" lon="-0.8464854826573956"><ele>1097.0</ele><time>2026-03-31T14:09:48Z</time></trkpt><trkpt lat="42.937496272167955" lon="-0.8467431048391318"><ele>1098.6666666666667</ele><time>2026-03-31T14:09:49Z</time></trkpt><trkpt lat="42.93748404534791" lon="-0.8470066871886077"><ele>1100.3333333333333</ele><time>2026-03-31T14:09:50Z</time></trkpt><trkpt lat="42.9374642076964" lon="-0.8472715565728257"><ele>1102.0</ele><time>2026-03-31T14:09:51Z</time></trkpt><trkpt lat="42.9374408038314" lon="-0.8475366160860706"><ele>1106.3333333333333</ele><time>2026-03-31T14:09:52Z</time></trkpt><trkpt lat="42.93741208894485" lon="-0.8478033261343043"><ele>1110.6666666666667</ele><time>2026-03-31T14:09:53Z</time></trkpt><trkpt lat="42.937374017678415" lon="-0.8480781574883866"><ele>1115.0</ele><time>2026-03-31T14:09:54Z</time></trkpt><trkpt lat="42.93732686290585" lon="-0.84834807415484"><ele>1120.6666666666667</ele><time>2026-03-31T14:09:55Z</time></trkpt><trkpt lat="42.93727180801552" lon="-0.8486206853616552"><ele>1126.3333333333333</ele><time>2026-03-31T14:09:56Z</time></trkpt><trkpt lat="42.93722168858763" lon="-0.8489025738787291"><ele>1132.0</ele><time>2026-03-31T14:09:57Z</time></trkpt><trkpt lat="42.93717627765834" lon="-0.8491892515719968"><ele>1133.0</ele><time>2026-03-31T14:09:58Z</time></trkpt><trkpt lat="42.9371384552342" lon="-0.8494756460183083"><ele>1134.0</ele><time>2026-03-31T14:09:59Z</time></trkpt><trkpt lat="42.937105075824945" lon="-0.8497621692469656"><ele>1135.0</ele><time>2026-03-31T14:10:00Z</time></trkpt><trkpt lat="42.93708193635033" lon="-0.8500402000956736"><ele>1135.3333333333333</ele><time>2026-03-31T14:10:01Z</time></trkpt><trkpt lat="42.937077679134504" lon="-0.8503058702794097"><ele>1135.6666666666667</ele><time>2026-03-31T14:10:02Z</time></trkpt><trkpt lat="42.93708859119294" lon="-0.850560815906268"><ele>1136.0</ele><time>2026-03-31T14:10:03Z</time></trkpt><trkpt lat="42.93710656996409" lon="-0.8508009404864667"><ele>1139.0</ele><time>2026-03-31T14:10:04Z</time></trkpt><trkpt lat="42.937095945444575" lon="-0.8510397629441604"><ele>1142.0</ele><time>2026-03-31T14:10:05Z</time></trkpt><trkpt lat="42.93705382803858" lon="-0.8512838454736217"><ele>1145.0</ele><time>2026-03-31T14:10:06Z</time></trkpt><trkpt lat="42.93701111451741" lon="-0.8515325167241926"><ele>1145.0</ele><time>2026-03-31T14:10:07Z</time></trkpt><trkpt lat="42.93698208359974" lon="-0.8517862070421497"><ele>1145.0</ele><time>2026-03-31T14:10:08Z</time></trkpt><trkpt lat="42.936961776069055" lon="-0.8520499435600217"><ele>1145.0</ele><time>2026-03-31T14:10:09Z</time></trkpt><trkpt lat="42.93695376583777" lon="-0.8523236995749512"><ele>1146.6666666666667</ele><time>2026-03-31T14:10:10Z</time></trkpt><trkpt lat="42.93695745534753" lon="-0.8526006746227828"><ele>1148.3333333333333</ele><time>2026-03-31T14:10:11Z</time></trkpt><trkpt lat="42.936965301066984" lon="-0.8528744213126757"><ele>1150.0</ele><time>2026-03-31T14:10:12Z</time></trkpt><trkpt lat="42.93697361137553" lon="-0.8531483843924379"><ele>1152.0</ele><time>2026-03-31T14:10:13Z</time></trkpt><trkpt lat="42.936979695189684" lon="-0.8534216930065873"><ele>1154.0</ele><time>2026-03-31T14:10:14Z</time></trkpt><trkpt lat="42.936979634947576" lon="-0.8537047753096306"><ele>1156.0</ele><time>2026-03-31T14:10:15Z</time></trkpt><trkpt lat="42.93697533221403" lon="-0.8539859324170204"><ele>1158.0</ele><time>2026-03-31T14:10:16Z</time></trkpt><trkpt lat="42.936968338195534" lon="-0.854265171344092"><ele>1160.0</ele><time>2026-03-31T14:10:17Z</time></trkpt><trkpt lat="42.93696431334718" lon="-0.854543749197198"><ele>1162.0</ele><time>2026-03-31T14:10:18Z</time></trkpt><trkpt lat="42.936963896823045" lon="-0.8548163658368394"><ele>1162.0</ele><time>2026-03-31T14:10:19Z</time></trkpt><trkpt lat="42.93697057602167" lon="-0.8550879924051139"><ele>1162.0</ele><time>2026-03-31T14:10:20Z</time></trkpt><trkpt lat="42.9369863660979" lon="-0.855358792554704"><ele>1162.0</ele><time>2026-03-31T14:10:21Z</time></trkpt><trkpt lat="42.93700624897638" lon="-0.8556034780915199"><ele>1161.75</ele><time>2026-03-31T14:10:22Z</time></trkpt><trkpt lat="42.93702307232853" lon="-0.8558205708607092"><ele>1161.5</ele><time>2026-03-31T14:10:23Z</time></trkpt><trkpt lat="42.9370342447776" lon="-0.8560129521853777"><ele>1161.25</ele><time>2026-03-31T14:10:24Z</time></trkpt><trkpt lat="42.937049160609966" lon="-0.856170475193351"><ele>1161.0</ele><time>2026-03-31T14:10:25Z</time></trkpt><trkpt lat="42.93707779532841" lon="-0.8562967566283906"><ele>1160.0</ele><time>2026-03-31T14:10:26Z</time></trkpt><trkpt lat="42.9371191587189" lon="-0.85638206321529"><ele>1159.0</ele><time>2026-03-31T14:10:27Z</time></trkpt><trkpt lat="42.93722366757065" lon="-0.8563922120212886"><ele>1158.0</ele><time>2026-03-31T14:10:29Z</time></trkpt><trkpt lat="42.93727654330816" lon="-0.8562573961395997"><ele>1157.0</ele><time>2026-03-31T14:10:31Z</time></trkpt><trkpt lat="42.93724996875284" lon="-0.8561542026629326"><ele>1156.0</ele><time>2026-03-31T14:10:32Z</time></trkpt><trkpt lat="42.93721087203797" lon="-0.8560245631785589"><ele>1157.25</ele><time>2026-03-31T14:10:33Z</time></trkpt><trkpt lat="42.93719703736952" lon="-0.8558822015278676"><ele>1158.5</ele><time>2026-03-31T14:10:34Z</time></trkpt><trkpt lat="42.93720991026678" lon="-0.8557139696854004"><ele>1159.75</ele><time>2026-03-31T14:10:35Z</time></trkpt><trkpt lat="42.93724410404197" lon="-0.8555151694672823"><ele>1161.0</ele><time>2026-03-31T14:10:36Z</time></trkpt><trkpt lat="42.93729794454199" lon="-0.8553013394247166"><ele>1161.3333333333333</ele><time>2026-03-31T14:10:37Z</time></trkpt><trkpt lat="42.9373618879129" lon="-0.8550876675500519"><ele>1161.6666666666665</ele><time>2026-03-31T14:10:38Z</time></trkpt><trkpt lat="42.937432207897785" lon="-0.8548582583031336"><ele>1162.0</ele><time>2026-03-31T14:10:39Z</time></trkpt><trkpt lat="42.93750468275575" lon="-0.8546122654842758"><ele>1172.3333333333333</ele><time>2026-03-31T14:10:40Z</time></trkpt><trkpt lat="42.937581079751304" lon="-0.8543665763227353"><ele>1182.6666666666667</ele><time>2026-03-31T14:10:41Z</time></trkpt><trkpt lat="42.937639884131926" lon="-0.8541145226361481"><ele>1193.0</ele><time>2026-03-31T14:10:42Z</time></trkpt><trkpt lat="42.93773935715992" lon="-0.8538841478748199"><ele>1193.0</ele><time>2026-03-31T14:10:43Z</time></trkpt><trkpt lat="42.93783230718516" lon="-0.853652445783991"><ele>1193.0</ele><time>2026-03-31T14:10:44Z</time></trkpt><trkpt lat="42.93793254915915" lon="-0.8534228029996014"><ele>1193.0</ele><time>2026-03-31T14:10:45Z</time></trkpt><trkpt lat="42.938030959967634" lon="-0.8531964977046693"><ele>1190.3333333333335</ele><time>2026-03-31T14:10:46Z</time></trkpt><trkpt lat="42.93812264672743" lon="-0.8529805100650152"><ele>1187.6666666666667</ele><time>2026-03-31T14:10:47Z</time></trkpt><trkpt lat="42.938207153279265" lon="-0.852773416701323"><ele>1185.0</ele><time>2026-03-31T14:10:48Z</time></trkpt><trkpt lat="42.93827474768551" lon="-0.8525841506708052"><ele>1182.75</ele><time>2026-03-31T14:10:49Z</time></trkpt><trkpt lat="42.93832129158415" lon="-0.8523919893871048"><ele>1180.5</ele><time>2026-03-31T14:10:50Z</time></trkpt><trkpt lat="42.93835564319709" lon="-0.852201759046745"><ele>1178.25</ele><time>2026-03-31T14:10:51Z</time></trkpt><trkpt lat="42.93839023158738" lon="-0.8520474305481948"><ele>1176.0</ele><time>2026-03-31T14:10:52Z</time></trkpt><trkpt lat="42.93842280186516" lon="-0.851936483007537"><ele>1181.8</ele><time>2026-03-31T14:10:53Z</time></trkpt><trkpt lat="42.93849123900995" lon="-0.8518653727151313"><ele>1187.6</ele><time>2026-03-31T14:10:54Z</time></trkpt><trkpt lat="42.938575281762276" lon="-0.8518382287827118"><ele>1193.4</ele><time>2026-03-31T14:10:55Z</time></trkpt><trkpt lat="42.93866340299899" lon="-0.8518959819178825"><ele>1199.2</ele><time>2026-03-31T14:10:56Z</time></trkpt><trkpt lat="42.93870057745789" lon="-0.8520364632606561"><ele>1205.0</ele><time>2026-03-31T14:10:57Z</time></trkpt><trkpt lat="42.938728228823834" lon="-0.8521542306998481"><ele>1205.0</ele><time>2026-03-31T14:10:58Z</time></trkpt><trkpt lat="42.93867579670119" lon="-0.8522095933241215"><ele>1205.0</ele><time>2026-03-31T14:10:59Z</time></trkpt><trkpt lat="42.93864211200393" lon="-0.8523859019019673"><ele>1205.0</ele><time>2026-03-31T14:11:00Z</time></trkpt><trkpt lat="42.938638536463834" lon="-0.8525942703225651"><ele>1205.0</ele><time>2026-03-31T14:11:01Z</time></trkpt><trkpt lat="42.93865983233603" lon="-0.8528136470743866"><ele>1207.6666666666667</ele><time>2026-03-31T14:11:02Z</time></trkpt><trkpt lat="42.938684324253174" lon="-0.8530207030512826"><ele>1210.3333333333333</ele><time>2026-03-31T14:11:03Z</time></trkpt><trkpt lat="42.93868121827149" lon="-0.8532386355384188"><ele>1213.0</ele><time>2026-03-31T14:11:04Z</time></trkpt><trkpt lat="42.93865258895776" lon="-0.8534568098273562"><ele>1215.6666666666665</ele><time>2026-03-31T14:11:05Z</time></trkpt><trkpt lat="42.93860602250606" lon="-0.8536666733117697"><ele>1218.3333333333333</ele><time>2026-03-31T14:11:06Z</time></trkpt><trkpt lat="42.93855840678332" lon="-0.8538734312585142"><ele>1221.0</ele><time>2026-03-31T14:11:07Z</time></trkpt><trkpt lat="42.93854136675108" lon="-0.8540831341110088"><ele>1220.0</ele><time>2026-03-31T14:11:08Z</time></trkpt><trkpt lat="42.9385350445526" lon="-0.8542922015240366"><ele>1219.0</ele><time>2026-03-31T14:11:09Z</time></trkpt><trkpt lat="42.93853127603838" lon="-0.854505238732056"><ele>1218.0</ele><time>2026-03-31T14:11:10Z</time></trkpt><trkpt lat="42.9385366343678" lon="-0.8547126240168766"><ele>1218.0</ele><time>2026-03-31T14:11:11Z</time></trkpt><trkpt lat="42.93853730332312" lon="-0.854874678379389"><ele>1218.0</ele><time>2026-03-31T14:11:12Z</time></trkpt><trkpt lat="42.93855051015465" lon="-0.8549911748311385"><ele>1218.0</ele><time>2026-03-31T14:11:13Z</time></trkpt><trkpt lat="42.938604857115266" lon="-0.8550562637828937"><ele>1218.0</ele><time>2026-03-31T14:11:14Z</time></trkpt><trkpt lat="42.93867784832366" lon="-0.8550426845589859"><ele>1218.0</ele><time>2026-03-31T14:11:15Z</time></trkpt><trkpt lat="42.9387220361436" lon="-0.8549350312426555"><ele>1218.0</ele><time>2026-03-31T14:11:16Z</time></trkpt><trkpt lat="42.938761959029286" lon="-0.8548380000493581"><ele>1218.0</ele><time>2026-03-31T14:11:17Z</time></trkpt><trkpt lat="42.93872256961209" lon="-0.8546788118668035"><ele>1218.0</ele><time>2026-03-31T14:11:18Z</time></trkpt><trkpt lat="42.93874040822345" lon="-0.8544966119286646"><ele>1218.0</ele><time>2026-03-31T14:11:19Z</time></trkpt><trkpt lat="42.9387677873497" lon="-0.8542909302909644"><ele>1218.0</ele><time>2026-03-31T14:11:20Z</time></trkpt><trkpt lat="42.93884619741147" lon="-0.8540477931369931"><ele>1219.0</ele><time>2026-03-31T14:11:21Z</time></trkpt><trkpt lat="42.93894101222297" lon="-0.8538457488362798"><ele>1220.0</ele><time>2026-03-31T14:11:22Z</time></trkpt><trkpt lat="42.9390373663401" lon="-0.8536719882390664"><ele>1221.0</ele><time>2026-03-31T14:11:23Z</time></trkpt><trkpt lat="42.939143173944245" lon="-0.8535012930601095"><ele>1228.6666666666667</ele><time>2026-03-31T14:11:24Z</time></trkpt><trkpt lat="42.9392404152121" lon="-0.8533194535417304"><ele>1236.3333333333335</ele><time>2026-03-31T14:11:25Z</time></trkpt><trkpt lat="42.93934316637953" lon="-0.853144295230967"><ele>1244.0</ele><time>2026-03-31T14:11:26Z</time></trkpt><trkpt lat="42.939454880981756" lon="-0.8529819931875559"><ele>1244.0</ele><time>2026-03-31T14:11:27Z</time></trkpt><trkpt lat="42.939535676971666" lon="-0.8527905382393624"><ele>1244.0</ele><time>2026-03-31T14:11:28Z</time></trkpt><trkpt lat="42.93962004563697" lon="-0.8526055540576991"><ele>1244.0</ele><time>2026-03-31T14:11:29Z</time></trkpt><trkpt lat="42.93971061733205" lon="-0.8524250724752677"><ele>1241.6666666666667</ele><time>2026-03-31T14:11:30Z</time></trkpt><trkpt lat="42.93978612946216" lon="-0.852207548067645"><ele>1239.3333333333333</ele><time>2026-03-31T14:11:31Z</time></trkpt><trkpt lat="42.939860710532294" lon="-0.8519730212030564"><ele>1237.0</ele><time>2026-03-31T14:11:32Z</time></trkpt><trkpt lat="42.93992906149747" lon="-0.8517278328787774"><ele>1234.6666666666665</ele><time>2026-03-31T14:11:33Z</time></trkpt><trkpt lat="42.939995359634814" lon="-0.8514919529819882"><ele>1232.3333333333333</ele><time>2026-03-31T14:11:34Z</time></trkpt><trkpt lat="42.94004621795887" lon="-0.8512840991015029"><ele>1230.0</ele><time>2026-03-31T14:11:35Z</time></trkpt><trkpt lat="42.940078511100985" lon="-0.851104043584753"><ele>1236.6</ele><time>2026-03-31T14:11:36Z</time></trkpt><trkpt lat="42.940104093650895" lon="-0.8509543594699943"><ele>1243.2</ele><time>2026-03-31T14:11:37Z</time></trkpt><trkpt lat="42.94013657376641" lon="-0.8508398144599696"><ele>1249.8</ele><time>2026-03-31T14:11:38Z</time></trkpt><trkpt lat="42.940201818902764" lon="-0.8507726074719192"><ele>1256.4</ele><time>2026-03-31T14:11:39Z</time></trkpt><trkpt lat="42.94029445372082" lon="-0.850767688014883"><ele>1263.0</ele><time>2026-03-31T14:11:40Z</time></trkpt><trkpt lat="42.94037154483819" lon="-0.8508320039835492"><ele>1263.0</ele><time>2026-03-31T14:11:41Z</time></trkpt><trkpt lat="42.940404475612475" lon="-0.8509431756456425"><ele>1263.0</ele><time>2026-03-31T14:11:42Z</time></trkpt><trkpt lat="42.94038779146722" lon="-0.8510662330084293"><ele>1263.0</ele><time>2026-03-31T14:11:43Z</time></trkpt><trkpt lat="42.940339014569595" lon="-0.8512129407244202"><ele>1263.0</ele><time>2026-03-31T14:11:44Z</time></trkpt><trkpt lat="42.940287601971804" lon="-0.8513984787732971"><ele>1263.0</ele><time>2026-03-31T14:11:45Z</time></trkpt><trkpt lat="42.940252529273884" lon="-0.8515948298830952"><ele>1264.3333333333333</ele><time>2026-03-31T14:11:46Z</time></trkpt><trkpt lat="42.94023608552075" lon="-0.8518006796275761"><ele>1265.6666666666665</ele><time>2026-03-31T14:11:47Z</time></trkpt><trkpt lat="42.94022999460097" lon="-0.8520155179681748"><ele>1267.0</ele><time>2026-03-31T14:11:48Z</time></trkpt><trkpt lat="42.940225763719255" lon="-0.8522380666690457"><ele>1267.0</ele><time>2026-03-31T14:11:49Z</time></trkpt><trkpt lat="42.940212766362954" lon="-0.8524599076417291"><ele>1267.0</ele><time>2026-03-31T14:11:50Z</time></trkpt><trkpt lat="42.9401796906089" lon="-0.8526851637670553"><ele>1267.0</ele><time>2026-03-31T14:11:51Z</time></trkpt><trkpt lat="42.94013115477993" lon="-0.8528982379946135"><ele>1266.4</ele><time>2026-03-31T14:11:52Z</time></trkpt><trkpt lat="42.94008757981394" lon="-0.8530846113538494"><ele>1265.8000000000002</ele><time>2026-03-31T14:11:53Z</time></trkpt><trkpt lat="42.940055362314304" lon="-0.853232643916478"><ele>1265.2</ele><time>2026-03-31T14:11:54Z</time></trkpt><trkpt lat="42.940034200449176" lon="-0.8533549841651485"><ele>1264.6000000000001</ele><time>2026-03-31T14:11:55Z</time></trkpt><trkpt lat="42.94003544766286" lon="-0.8534592836099016"><ele>1264.0</ele><time>2026-03-31T14:11:56Z</time></trkpt><trkpt lat="42.940071494783346" lon="-0.8535363401662275"><ele>1264.0</ele><time>2026-03-31T14:11:57Z</time></trkpt><trkpt lat="42.940192944894285" lon="-0.853558366939338"><ele>1264.0</ele><time>2026-03-31T14:11:59Z</time></trkpt><trkpt lat="42.94024761464381" lon="-0.8534947611168028"><ele>1264.0</ele><time>2026-03-31T14:12:00Z</time></trkpt><trkpt lat="42.94025216037511" lon="-0.8533740194354648"><ele>1264.0</ele><time>2026-03-31T14:12:01Z</time></trkpt><trkpt lat="42.94027497350465" lon="-0.8532453036446066"><ele>1264.0</ele><time>2026-03-31T14:12:02Z</time></trkpt><trkpt lat="42.94033071326575" lon="-0.8530995421935306"><ele>1264.0</ele><time>2026-03-31T14:12:03Z</time></trkpt><trkpt lat="42.94038665207316" lon="-0.8529363277803167"><ele>1264.0</ele><time>2026-03-31T14:12:04Z</time></trkpt><trkpt lat="42.94047263754464" lon="-0.8527737902695984"><ele>1264.0</ele><time>2026-03-31T14:12:05Z</time></trkpt><trkpt lat="42.94057861466012" lon="-0.8525946905982474"><ele>1264.0</ele><time>2026-03-31T14:12:06Z</time></trkpt><trkpt lat="42.94068231699514" lon="-0.852419718319036"><ele>1265.0</ele><time>2026-03-31T14:12:07Z</time></trkpt><trkpt lat="42.94075276659759" lon="-0.8522243167877166"><ele>1266.0</ele><time>2026-03-31T14:12:08Z</time></trkpt><trkpt lat="42.940840021502154" lon="-0.8520486979902399"><ele>1267.0</ele><time>2026-03-31T14:12:09Z</time></trkpt><trkpt lat="42.940901671009875" lon="-0.851859854386098"><ele>1279.6666666666665</ele><time>2026-03-31T14:12:10Z</time></trkpt><trkpt lat="42.9409587984238" lon="-0.8516584213757129"><ele>1292.3333333333333</ele><time>2026-03-31T14:12:11Z</time></trkpt><trkpt lat="42.94100631066507" lon="-0.8514475257630246"><ele>1305.0</ele><time>2026-03-31T14:12:12Z</time></trkpt><trkpt lat="42.94103454431112" lon="-0.8512310280729658"><ele>1305.0</ele><time>2026-03-31T14:12:13Z</time></trkpt><trkpt lat="42.94104396241177" lon="-0.8510193060407658"><ele>1305.0</ele><time>2026-03-31T14:12:14Z</time></trkpt><trkpt lat="42.94104856716044" lon="-0.8508356071920364"><ele>1305.0</ele><time>2026-03-31T14:12:15Z</time></trkpt><trkpt lat="42.94105865828994" lon="-0.8506972339642986"><ele>1305.0</ele><time>2026-03-31T14:12:16Z</time></trkpt><trkpt lat="42.94109016000106" lon="-0.8505920026111703"><ele>1305.0</ele><time>2026-03-31T14:12:17Z</time></trkpt><trkpt lat="42.94115563922695" lon="-0.8505490748917642"><ele>1305.0</ele><time>2026-03-31T14:12:18Z</time></trkpt><trkpt lat="42.941230754452555" lon="-0.8505697623446846"><ele>1305.0</ele><time>2026-03-31T14:12:19Z</time></trkpt><trkpt lat="42.94128688184976" lon="-0.8506401077326705"><ele>1305.0</ele><time>2026-03-31T14:12:20Z</time></trkpt><trkpt lat="42.94131760363421" lon="-0.8507495773827528"><ele>1305.0</ele><time>2026-03-31T14:12:21Z</time></trkpt><trkpt lat="42.941309876357145" lon="-0.8508914642911493"><ele>1305.0</ele><time>2026-03-31T14:12:22Z</time></trkpt><trkpt lat="42.94128450871114" lon="-0.851052647431013"><ele>1305.0</ele><time>2026-03-31T14:12:23Z</time></trkpt><trkpt lat="42.9412628590888" lon="-0.8512217375670718"><ele>1305.0</ele><time>2026-03-31T14:12:24Z</time></trkpt><trkpt lat="42.941253523203194" lon="-0.8514185573378092"><ele>1305.0</ele><time>2026-03-31T14:12:25Z</time></trkpt><trkpt lat="42.94127395158639" lon="-0.8516012729589314"><ele>1305.0</ele><time>2026-03-31T14:12:26Z</time></trkpt><trkpt lat="42.94130038990171" lon="-0.8518202814187894"><ele>1302.25</ele><time>2026-03-31T14:12:27Z</time></trkpt><trkpt lat="42.9413377934324" lon="-0.8520161669702268"><ele>1299.5</ele><time>2026-03-31T14:12:28Z</time></trkpt><trkpt lat="42.94138537975447" lon="-0.8521967308925095"><ele>1296.75</ele><time>2026-03-31T14:12:29Z</time></trkpt><trkpt lat="42.94144086650805" lon="-0.8523679027081565"><ele>1294.0</ele><time>2026-03-31T14:12:30Z</time></trkpt><trkpt lat="42.94151009377704" lon="-0.8525257051724375"><ele>1291.75</ele><time>2026-03-31T14:12:31Z</time></trkpt><trkpt lat="42.94161749371938" lon="-0.8526521931118538"><ele>1289.5</ele><time>2026-03-31T14:12:32Z</time></trkpt><trkpt lat="42.94173546816656" lon="-0.8527623509805063"><ele>1287.25</ele><time>2026-03-31T14:12:33Z</time></trkpt><trkpt lat="42.94186266210057" lon="-0.852857916846968"><ele>1285.0</ele><time>2026-03-31T14:12:34Z</time></trkpt><trkpt lat="42.942008164818915" lon="-0.85286964430881"><ele>1285.0</ele><time>2026-03-31T14:12:35Z</time></trkpt><trkpt lat="42.942151714228885" lon="-0.8528835727739255"><ele>1285.0</ele><time>2026-03-31T14:12:36Z</time></trkpt><trkpt lat="42.94230293050244" lon="-0.8529004789487905"><ele>1285.0</ele><time>2026-03-31T14:12:37Z</time></trkpt><trkpt lat="42.94246059157338" lon="-0.8529230573821636"><ele>1292.3333333333333</ele><time>2026-03-31T14:12:38Z</time></trkpt><trkpt lat="42.942621935787976" lon="-0.8529744561819882"><ele>1299.6666666666667</ele><time>2026-03-31T14:12:39Z</time></trkpt><trkpt lat="42.94278478849708" lon="-0.8530125725958383"><ele>1307.0</ele><time>2026-03-31T14:12:40Z</time></trkpt><trkpt lat="42.94293930249065" lon="-0.8530564947416538"><ele>1307.0</ele><time>2026-03-31T14:12:41Z</time></trkpt><trkpt lat="42.94308773889699" lon="-0.853118897575328"><ele>1307.0</ele><time>2026-03-31T14:12:42Z</time></trkpt><trkpt lat="42.943223499703684" lon="-0.8532064363761759"><ele>1307.0</ele><time>2026-03-31T14:12:43Z</time></trkpt><trkpt lat="42.94334301014214" lon="-0.8533122890400985"><ele>1307.0</ele><time>2026-03-31T14:12:44Z</time></trkpt><trkpt lat="42.94344162110897" lon="-0.8534053092250253"><ele>1308.5</ele><time>2026-03-31T14:12:45Z</time></trkpt><trkpt lat="42.94353101956899" lon="-0.8534554496632407"><ele>1310.0</ele><time>2026-03-31T14:12:46Z</time></trkpt><trkpt lat="42.94360867842454" lon="-0.8534571487001529"><ele>1311.5</ele><time>2026-03-31T14:12:47Z</time></trkpt><trkpt lat="42.94366530262012" lon="-0.8534069506540131"><ele>1313.0</ele><time>2026-03-31T14:12:48Z</time></trkpt><trkpt lat="42.94368531792565" lon="-0.8533241715559995"><ele>1314.5</ele><time>2026-03-31T14:12:49Z</time></trkpt><trkpt lat="42.943622037348796" lon="-0.8531820552804344"><ele>1316.0</ele><time>2026-03-31T14:12:51Z</time></trkpt><trkpt lat="42.94354414522309" lon="-0.8531365224126161"><ele>1313.75</ele><time>2026-03-31T14:12:52Z</time></trkpt><trkpt lat="42.94344933433919" lon="-0.8530925882406837"><ele>1311.5</ele><time>2026-03-31T14:12:53Z</time></trkpt><trkpt lat="42.94334268134788" lon="-0.8530245367376739"><ele>1309.25</ele><time>2026-03-31T14:12:54Z</time></trkpt><trkpt lat="42.943229488975405" lon="-0.8529372715353869"><ele>1307.0</ele><time>2026-03-31T14:12:55Z</time></trkpt><trkpt lat="42.94310881704004" lon="-0.8528375250075396"><ele>1307.0</ele><time>2026-03-31T14:12:56Z</time></trkpt><trkpt lat="42.94297198072168" lon="-0.8527351274093806"><ele>1307.0</ele><time>2026-03-31T14:12:57Z</time></trkpt><trkpt lat="42.94283291928473" lon="-0.8526342966082194"><ele>1307.0</ele><time>2026-03-31T14:12:58Z</time></trkpt><trkpt lat="42.94269241665446" lon="-0.8525435578924409"><ele>1308.5</ele><time>2026-03-31T14:12:59Z</time></trkpt><trkpt lat="42.942562530607574" lon="-0.8524662565323435"><ele>1310.0</ele><time>2026-03-31T14:13:00Z</time></trkpt><trkpt lat="42.94243911131131" lon="-0.8523899288608485"><ele>1311.5</ele><time>2026-03-31T14:13:01Z</time></trkpt><trkpt lat="42.942324134572" lon="-0.8523028950769971"><ele>1313.0</ele><time>2026-03-31T14:13:02Z</time></trkpt><trkpt lat="42.94222294530848" lon="-0.8521948544546525"><ele>1313.0</ele><time>2026-03-31T14:13:03Z</time></trkpt><trkpt lat="42.94214252559026" lon="-0.8520581613164105"><ele>1313.0</ele><time>2026-03-31T14:13:04Z</time></trkpt><trkpt lat="42.942085681509326" lon="-0.8518993451644369"><ele>1313.0</ele><time>2026-03-31T14:13:05Z</time></trkpt><trkpt lat="42.94204676113667" lon="-0.8517279031498126"><ele>1313.0</ele><time>2026-03-31T14:13:06Z</time></trkpt><trkpt lat="42.942024406086496" lon="-0.8515405009712216"><ele>1321.6666666666667</ele><time>2026-03-31T14:13:07Z</time></trkpt><trkpt lat="42.942017891676294" lon="-0.8513402725852661"><ele>1330.3333333333333</ele><time>2026-03-31T14:13:08Z</time></trkpt><trkpt lat="42.942021824747265" lon="-0.8511314402356626"><ele>1339.0</ele><time>2026-03-31T14:13:09Z</time></trkpt><trkpt lat="42.94202601218215" lon="-0.8509210311318423"><ele>1342.0</ele><time>2026-03-31T14:13:10Z</time></trkpt><trkpt lat="42.94202587588565" lon="-0.8507135141818538"><ele>1345.0</ele><time>2026-03-31T14:13:11Z</time></trkpt><trkpt lat="42.94202817812969" lon="-0.8505122153612519"><ele>1348.0</ele><time>2026-03-31T14:13:12Z</time></trkpt><trkpt lat="42.94204344282213" lon="-0.8503181397035704"><ele>1351.0</ele><time>2026-03-31T14:13:13Z</time></trkpt><trkpt lat="42.94207166405905" lon="-0.8501315128140358"><ele>1350.75</ele><time>2026-03-31T14:13:14Z</time></trkpt><trkpt lat="42.94211012123199" lon="-0.8499588445595845"><ele>1350.5</ele><time>2026-03-31T14:13:15Z</time></trkpt><trkpt lat="42.94216369136551" lon="-0.849805735220916"><ele>1350.25</ele><time>2026-03-31T14:13:16Z</time></trkpt><trkpt lat="42.94222825376821" lon="-0.8496801532985411"><ele>1350.0</ele><time>2026-03-31T14:13:17Z</time></trkpt><trkpt lat="42.94230890285027" lon="-0.8495842325886378"><ele>1350.0</ele><time>2026-03-31T14:13:18Z</time></trkpt><trkpt lat="42.94240341100552" lon="-0.849512718093649"><ele>1350.0</ele><time>2026-03-31T14:13:19Z</time></trkpt><trkpt lat="42.942500778094356" lon="-0.8494471458686459"><ele>1350.0</ele><time>2026-03-31T14:13:20Z</time></trkpt><trkpt lat="42.9425938968133" lon="-0.8493628642792883"><ele>1350.0</ele><time>2026-03-31T14:13:21Z</time></trkpt><trkpt lat="42.94266971081994" lon="-0.8492497505686339"><ele>1350.0</ele><time>2026-03-31T14:13:22Z</time></trkpt><trkpt lat="42.94271697734773" lon="-0.8491121857787918"><ele>1352.75</ele><time>2026-03-31T14:13:23Z</time></trkpt><trkpt lat="42.94273537786294" lon="-0.8489586634035627"><ele>1355.5</ele><time>2026-03-31T14:13:24Z</time></trkpt><trkpt lat="42.942731219338704" lon="-0.848797665614262"><ele>1358.25</ele><time>2026-03-31T14:13:25Z</time></trkpt><trkpt lat="42.94267575221665" lon="-0.8486498803293546"><ele>1361.0</ele><time>2026-03-31T14:13:26Z</time></trkpt><trkpt lat="42.94261856130582" lon="-0.8485133167244724"><ele>1357.5</ele><time>2026-03-31T14:13:27Z</time></trkpt><trkpt lat="42.94254198010597" lon="-0.8483932820584962"><ele>1354.0</ele><time>2026-03-31T14:13:28Z</time></trkpt><trkpt lat="42.942463224521" lon="-0.8482668228115527"><ele>1350.5</ele><time>2026-03-31T14:13:29Z</time></trkpt><trkpt lat="42.942397455867685" lon="-0.848130990321563"><ele>1347.0</ele><time>2026-03-31T14:13:30Z</time></trkpt><trkpt lat="42.942336085247476" lon="-0.8479989859934142"><ele>1347.0</ele><time>2026-03-31T14:13:31Z</time></trkpt><trkpt lat="42.942291743439434" lon="-0.8478482631540293"><ele>1347.0</ele><time>2026-03-31T14:13:32Z</time></trkpt><trkpt lat="42.942244245642016" lon="-0.847695681427185"><ele>1347.0</ele><time>2026-03-31T14:13:33Z</time></trkpt><trkpt lat="42.942239735103364" lon="-0.8475269469715976"><ele>1347.0</ele><time>2026-03-31T14:13:34Z</time></trkpt><trkpt lat="42.94221644669198" lon="-0.8473595527517254"><ele>1350.75</ele><time>2026-03-31T14:13:35Z</time></trkpt><trkpt lat="42.94221081626419" lon="-0.8471740233379534"><ele>1354.5</ele><time>2026-03-31T14:13:36Z</time></trkpt><trkpt lat="42.94221523586593" lon="-0.8469889907010122"><ele>1358.25</ele><time>2026-03-31T14:13:37Z</time></trkpt><trkpt lat="42.94222564981107" lon="-0.8468079217149896"><ele>1362.0</ele><time>2026-03-31T14:13:38Z</time></trkpt><trkpt lat="42.942238870156444" lon="-0.8466324075061445"><ele>1362.75</ele><time>2026-03-31T14:13:39Z</time></trkpt><trkpt lat="42.94226241973481" lon="-0.8464633438917041"><ele>1363.5</ele><time>2026-03-31T14:13:40Z</time></trkpt><trkpt lat="42.942319174934696" lon="-0.8463122443331272"><ele>1364.25</ele><time>2026-03-31T14:13:41Z</time></trkpt><trkpt lat="42.942407885224306" lon="-0.8461764724895279"><ele>1365.0</ele><time>2026-03-31T14:13:42Z</time></trkpt><trkpt lat="42.94252628116086" lon="-0.8460798124235799"><ele>1369.0</ele><time>2026-03-31T14:13:43Z</time></trkpt><trkpt lat="42.942659421809694" lon="-0.8460256062171103"><ele>1373.0</ele><time>2026-03-31T14:13:44Z</time></trkpt><trkpt lat="42.94279771887096" lon="-0.8460162118286474"><ele>1377.0</ele><time>2026-03-31T14:13:45Z</time></trkpt><trkpt lat="42.94293714967932" lon="-0.8460458298282235"><ele>1381.0</ele><time>2026-03-31T14:13:46Z</time></trkpt><trkpt lat="42.94307534216688" lon="-0.8460795795238611"><ele>1381.0</ele><time>2026-03-31T14:13:47Z</time></trkpt><trkpt lat="42.94320939418493" lon="-0.8460407650642298"><ele>1381.0</ele><time>2026-03-31T14:13:48Z</time></trkpt><trkpt lat="42.94334456432585" lon="-0.8459965018898734"><ele>1381.0</ele><time>2026-03-31T14:13:49Z</time></trkpt><trkpt lat="42.94347103678378" lon="-0.8459312321589563"><ele>1381.0</ele><time>2026-03-31T14:13:50Z</time></trkpt><trkpt lat="42.9435925763072" lon="-0.8458532409404271"><ele>1383.75</ele><time>2026-03-31T14:13:51Z</time></trkpt><trkpt lat="42.94369281201338" lon="-0.8457432152007023"><ele>1386.5</ele><time>2026-03-31T14:13:52Z</time></trkpt><trkpt lat="42.943763819911005" lon="-0.845595861511626"><ele>1389.25</ele><time>2026-03-31T14:13:53Z</time></trkpt><trkpt lat="42.943791460192315" lon="-0.8454281739518037"><ele>1392.0</ele><time>2026-03-31T14:13:54Z</time></trkpt><trkpt lat="42.94383172368245" lon="-0.8452438818752817"><ele>1391.3333333333333</ele><time>2026-03-31T14:13:55Z</time></trkpt><trkpt lat="42.9439043970245" lon="-0.8450818515600212"><ele>1390.6666666666665</ele><time>2026-03-31T14:13:56Z</time></trkpt><trkpt lat="42.943986658220624" lon="-0.8449114781046246"><ele>1390.0</ele><time>2026-03-31T14:13:57Z</time></trkpt><trkpt lat="42.944093562247076" lon="-0.8447443650425204"><ele>1390.0</ele><time>2026-03-31T14:13:58Z</time></trkpt><trkpt lat="42.9442063911005" lon="-0.844569813890723"><ele>1390.0</ele><time>2026-03-31T14:13:59Z</time></trkpt><trkpt lat="42.944320395134135" lon="-0.8443933257540398"><ele>1390.0</ele><time>2026-03-31T14:14:00Z</time></trkpt><trkpt lat="42.944418755176955" lon="-0.8442001012451965"><ele>1396.3333333333333</ele><time>2026-03-31T14:14:01Z</time></trkpt><trkpt lat="42.94454119034701" lon="-0.844042538508423"><ele>1402.6666666666667</ele><time>2026-03-31T14:14:02Z</time></trkpt><trkpt lat="42.94465948956672" lon="-0.843889164901272"><ele>1409.0</ele><time>2026-03-31T14:14:03Z</time></trkpt><trkpt lat="42.944787853188004" lon="-0.8437605897654373"><ele>1409.0</ele><time>2026-03-31T14:14:04Z</time></trkpt><trkpt lat="42.94491904217498" lon="-0.843642463836418"><ele>1409.0</ele><time>2026-03-31T14:14:05Z</time></trkpt><trkpt lat="42.94504674724984" lon="-0.8435212493049563"><ele>1409.0</ele><time>2026-03-31T14:14:06Z</time></trkpt><trkpt lat="42.94516352155117" lon="-0.8434013048736879"><ele>1413.25</ele><time>2026-03-31T14:14:07Z</time></trkpt><trkpt lat="42.94526536985478" lon="-0.843281769079982"><ele>1417.5</ele><time>2026-03-31T14:14:08Z</time></trkpt><trkpt lat="42.94534500908469" lon="-0.843144199165828"><ele>1421.75</ele><time>2026-03-31T14:14:09Z</time></trkpt><trkpt lat="42.94540869905532" lon="-0.8430172158935172"><ele>1426.0</ele><time>2026-03-31T14:14:10Z</time></trkpt><trkpt lat="42.945451257907095" lon="-0.8428831094199003"><ele>1426.0</ele><time>2026-03-31T14:14:11Z</time></trkpt><trkpt lat="42.94546103516606" lon="-0.8427412091834711"><ele>1426.0</ele><time>2026-03-31T14:14:12Z</time></trkpt><trkpt lat="42.94543482617038" lon="-0.8426065038277287"><ele>1426.0</ele><time>2026-03-31T14:14:13Z</time></trkpt><trkpt lat="42.94538917864769" lon="-0.842474453971021"><ele>1426.0</ele><time>2026-03-31T14:14:14Z</time></trkpt><trkpt lat="42.94531353639434" lon="-0.8423701401625794"><ele>1426.0</ele><time>2026-03-31T14:14:15Z</time></trkpt><trkpt lat="42.945218924374295" lon="-0.8422869857750767"><ele>1425.25</ele><time>2026-03-31T14:14:16Z</time></trkpt><trkpt lat="42.94512210186356" lon="-0.8421853473082673"><ele>1424.5</ele><time>2026-03-31T14:14:17Z</time></trkpt><trkpt lat="42.94503952078422" lon="-0.8420505289091376"><ele>1423.75</ele><time>2026-03-31T14:14:18Z</time></trkpt><trkpt lat="42.944957506673575" lon="-0.8419126004309517"><ele>1423.0</ele><time>2026-03-31T14:14:19Z</time></trkpt><trkpt lat="42.94490018078011" lon="-0.8417570429900738"><ele>1420.0</ele><time>2026-03-31T14:14:20Z</time></trkpt><trkpt lat="42.94487400133798" lon="-0.8415921643355283"><ele>1417.0</ele><time>2026-03-31T14:14:21Z</time></trkpt><trkpt lat="42.94487732693855" lon="-0.8414244898809224"><ele>1414.0</ele><time>2026-03-31T14:14:22Z</time></trkpt><trkpt lat="42.944912813139055" lon="-0.841259959961398"><ele>1411.0</ele><time>2026-03-31T14:14:23Z</time></trkpt><trkpt lat="42.94497702112617" lon="-0.8411064932157125"><ele>1417.25</ele><time>2026-03-31T14:14:24Z</time></trkpt><trkpt lat="42.94506262544731" lon="-0.840965257746849"><ele>1423.5</ele><time>2026-03-31T14:14:25Z</time></trkpt><trkpt lat="42.945167707987366" lon="-0.8408302510975028"><ele>1429.75</ele><time>2026-03-31T14:14:26Z</time></trkpt><trkpt lat="42.945282523788336" lon="-0.8406969374131192"><ele>1436.0</ele><time>2026-03-31T14:14:27Z</time></trkpt><trkpt lat="42.945392890696944" lon="-0.8405690848263446"><ele>1436.0</ele><time>2026-03-31T14:14:28Z</time></trkpt><trkpt lat="42.94550679964593" lon="-0.8404527113270845"><ele>1436.0</ele><time>2026-03-31T14:14:29Z</time></trkpt><trkpt lat="42.94562630125471" lon="-0.8403315158079702"><ele>1436.0</ele><time>2026-03-31T14:14:30Z</time></trkpt><trkpt lat="42.94572301259379" lon="-0.8401658259017595"><ele>1436.0</ele><time>2026-03-31T14:14:31Z</time></trkpt><trkpt lat="42.94581158120347" lon="-0.8400025381746291"><ele>1447.0</ele><time>2026-03-31T14:14:32Z</time></trkpt><trkpt lat="42.945892217961045" lon="-0.8398240784996893"><ele>1458.0</ele><time>2026-03-31T14:14:33Z</time></trkpt><trkpt lat="42.94597120774603" lon="-0.8396400250709614"><ele>1469.0</ele><time>2026-03-31T14:14:34Z</time></trkpt><trkpt lat="42.94605972900835" lon="-0.8394635590927415"><ele>1467.0</ele><time>2026-03-31T14:14:35Z</time></trkpt><trkpt lat="42.946129884532596" lon="-0.8392773433171311"><ele>1465.0</ele><time>2026-03-31T14:14:36Z</time></trkpt><trkpt lat="42.94615241818565" lon="-0.8390858794405818"><ele>1463.0</ele><time>2026-03-31T14:14:37Z</time></trkpt><trkpt lat="42.94615275083393" lon="-0.8388998531010178"><ele>1461.0</ele><time>2026-03-31T14:14:38Z</time></trkpt><trkpt lat="42.94613777545047" lon="-0.8387000233638447"><ele>1461.0</ele><time>2026-03-31T14:14:39Z</time></trkpt><trkpt lat="42.946118296052134" lon="-0.8385094195230858"><ele>1461.0</ele><time>2026-03-31T14:14:40Z</time></trkpt><trkpt lat="42.94610397854198" lon="-0.8383313301492779"><ele>1461.0</ele><time>2026-03-31T14:14:41Z</time></trkpt><trkpt lat="42.946065895331905" lon="-0.8381711292035168"><ele>1461.0</ele><time>2026-03-31T14:14:42Z</time></trkpt><trkpt lat="42.94601685818707" lon="-0.8380192343141148"><ele>1460.8</ele><time>2026-03-31T14:14:43Z</time></trkpt><trkpt lat="42.94593061990074" lon="-0.8379143728351167"><ele>1460.6</ele><time>2026-03-31T14:14:44Z</time></trkpt><trkpt lat="42.94587005971622" lon="-0.8378057054280577"><ele>1460.4</ele><time>2026-03-31T14:14:45Z</time></trkpt><trkpt lat="42.945796913499485" lon="-0.8377496688002951"><ele>1460.2</ele><time>2026-03-31T14:14:46Z</time></trkpt><trkpt lat="42.9457075281375" lon="-0.8376904015079477"><ele>1460.0</ele><time>2026-03-31T14:14:48Z</time></trkpt><trkpt lat="42.945662637216905" lon="-0.8376003817062312"><ele>1457.1666666666667</ele><time>2026-03-31T14:14:50Z</time></trkpt><trkpt lat="42.945701777109434" lon="-0.8375109754392289"><ele>1454.3333333333335</ele><time>2026-03-31T14:17:18Z</time></trkpt><trkpt lat="42.94575961115867" lon="-0.837418076374756"><ele>1451.5</ele><time>2026-03-31T14:17:20Z</time></trkpt><trkpt lat="42.94579012624524" lon="-0.8372893701146311"><ele>1448.6666666666667</ele><time>2026-03-31T14:17:22Z</time></trkpt><trkpt lat="42.94580691378718" lon="-0.837195337816933"><ele>1445.8333333333333</ele><time>2026-03-31T14:17:23Z</time></trkpt><trkpt lat="42.94580752016727" lon="-0.8370628528662939"><ele>1443.0</ele><time>2026-03-31T14:17:24Z</time></trkpt><trkpt lat="42.94584045592546" lon="-0.8369512168830849"><ele>1443.0</ele><time>2026-03-31T14:17:25Z</time></trkpt><trkpt lat="42.94587394696173" lon="-0.836835666737463"><ele>1443.0</ele><time>2026-03-31T14:17:26Z</time></trkpt><trkpt lat="42.94590853934714" lon="-0.8367146017055903"><ele>1443.0</ele><time>2026-03-31T14:17:27Z</time></trkpt><trkpt lat="42.945943899307395" lon="-0.8365908503537454"><ele>1443.0</ele><time>2026-03-31T14:17:28Z</time></trkpt><trkpt lat="42.94599603659643" lon="-0.8364649294598079"><ele>1443.0</ele><time>2026-03-31T14:17:29Z</time></trkpt><trkpt lat="42.9460378866069" lon="-0.8363189774395141"><ele>1449.75</ele><time>2026-03-31T14:17:30Z</time></trkpt><trkpt lat="42.9460836028702" lon="-0.8361607940510151"><ele>1456.5</ele><time>2026-03-31T14:17:31Z</time></trkpt><trkpt lat="42.94612957997961" lon="-0.8360047782608286"><ele>1463.25</ele><time>2026-03-31T14:17:32Z</time></trkpt><trkpt lat="42.94617432275958" lon="-0.8358533004727146"><ele>1470.0</ele><time>2026-03-31T14:17:33Z</time></trkpt><trkpt lat="42.946220131607056" lon="-0.8356978427617082"><ele>1470.0</ele><time>2026-03-31T14:17:34Z</time></trkpt><trkpt lat="42.94625473104983" lon="-0.8355175377197908"><ele>1470.0</ele><time>2026-03-31T14:17:35Z</time></trkpt><trkpt lat="42.94630460018109" lon="-0.8353429587930281"><ele>1470.0</ele><time>2026-03-31T14:17:36Z</time></trkpt><trkpt lat="42.94635473297548" lon="-0.8351674568520794"><ele>1470.0</ele><time>2026-03-31T14:17:37Z</time></trkpt><trkpt lat="42.946406646954344" lon="-0.834985719436587"><ele>1469.0</ele><time>2026-03-31T14:17:38Z</time></trkpt><trkpt lat="42.94645981348821" lon="-0.8347982588970815"><ele>1468.0</ele><time>2026-03-31T14:17:39Z</time></trkpt><trkpt lat="42.946513260476436" lon="-0.8346095195570483"><ele>1467.0</ele><time>2026-03-31T14:17:40Z</time></trkpt><trkpt lat="42.9465657556485" lon="-0.8344241414039776"><ele>1466.0</ele><time>2026-03-31T14:17:41Z</time></trkpt><trkpt lat="42.94662025345275" lon="-0.834231691268817"><ele>1466.0</ele><time>2026-03-31T14:17:42Z</time></trkpt><trkpt lat="42.946674764483404" lon="-0.8340391944316564"><ele>1466.0</ele><time>2026-03-31T14:17:43Z</time></trkpt><trkpt lat="42.946728254166196" lon="-0.8338503043307284"><ele>1466.0</ele><time>2026-03-31T14:17:44Z</time></trkpt><trkpt lat="42.94678082056111" lon="-0.8336644294348738"><ele>1466.0</ele><time>2026-03-31T14:17:45Z</time></trkpt><trkpt lat="42.94683307991823" lon="-0.8334781440252824"><ele>1476.3333333333335</ele><time>2026-03-31T14:17:46Z</time></trkpt><trkpt lat="42.946886864003574" lon="-0.8332864235129407"><ele>1486.6666666666667</ele><time>2026-03-31T14:17:47Z</time></trkpt><trkpt lat="42.94694172654677" lon="-0.8330908581200199"><ele>1497.0</ele><time>2026-03-31T14:17:48Z</time></trkpt><trkpt lat="42.94699818406633" lon="-0.8328920085961556"><ele>1497.0</ele><time>2026-03-31T14:17:49Z</time></trkpt><trkpt lat="42.947053071847215" lon="-0.832700561579382"><ele>1497.0</ele><time>2026-03-31T14:17:50Z</time></trkpt><trkpt lat="42.94711169459564" lon="-0.8325075218045291"><ele>1497.0</ele><time>2026-03-31T14:17:51Z</time></trkpt><trkpt lat="42.94717927144635" lon="-0.8323185520379017"><ele>1495.0</ele><time>2026-03-31T14:17:52Z</time></trkpt><trkpt lat="42.94725571998564" lon="-0.8321310991371674"><ele>1493.0</ele><time>2026-03-31T14:17:53Z</time></trkpt><trkpt lat="42.947331649804674" lon="-0.8319510218306132"><ele>1491.0</ele><time>2026-03-31T14:17:54Z</time></trkpt><trkpt lat="42.94741079435949" lon="-0.8317727465798778"><ele>1487.6666666666667</ele><time>2026-03-31T14:17:55Z</time></trkpt><trkpt lat="42.94749435794246" lon="-0.8316010885056322"><ele>1484.3333333333335</ele><time>2026-03-31T14:17:56Z</time></trkpt><trkpt lat="42.94758646853021" lon="-0.8314374368259114"><ele>1481.0</ele><time>2026-03-31T14:17:57Z</time></trkpt><trkpt lat="42.947686617778494" lon="-0.8312868772025923"><ele>1485.3333333333335</ele><time>2026-03-31T14:17:58Z</time></trkpt><trkpt lat="42.94779513725929" lon="-0.8311449794565448"><ele>1489.6666666666667</ele><time>2026-03-31T14:17:59Z</time></trkpt><trkpt lat="42.947911617308755" lon="-0.8310099518199839"><ele>1494.0</ele><time>2026-03-31T14:18:00Z</time></trkpt><trkpt lat="42.94803051750536" lon="-0.830874597151892"><ele>1494.0</ele><time>2026-03-31T14:18:01Z</time></trkpt><trkpt lat="42.94814942267158" lon="-0.8307393685384203"><ele>1494.0</ele><time>2026-03-31T14:18:02Z</time></trkpt><trkpt lat="42.94827249024702" lon="-0.830611674985312"><ele>1494.0</ele><time>2026-03-31T14:18:03Z</time></trkpt><trkpt lat="42.94836837701579" lon="-0.8304517635474817"><ele>1500.0</ele><time>2026-03-31T14:18:04Z</time></trkpt><trkpt lat="42.94844751478701" lon="-0.8302721877370842"><ele>1506.0</ele><time>2026-03-31T14:18:05Z</time></trkpt><trkpt lat="42.94848563272286" lon="-0.8300749823076269"><ele>1512.0</ele><time>2026-03-31T14:18:06Z</time></trkpt><trkpt lat="42.948538781363496" lon="-0.8298791896813176"><ele>1512.0</ele><time>2026-03-31T14:18:07Z</time></trkpt><trkpt lat="42.94859996761854" lon="-0.8296825437001023"><ele>1512.0</ele><time>2026-03-31T14:18:08Z</time></trkpt><trkpt lat="42.948668655923804" lon="-0.8294861455882401"><ele>1512.0</ele><time>2026-03-31T14:18:09Z</time></trkpt><trkpt lat="42.94874354939411" lon="-0.8292865365487435"><ele>1510.3333333333333</ele><time>2026-03-31T14:18:10Z</time></trkpt><trkpt lat="42.948822765726895" lon="-0.8290957445128526"><ele>1508.6666666666665</ele><time>2026-03-31T14:18:11Z</time></trkpt><trkpt lat="42.9489048086895" lon="-0.8289008949432314"><ele>1507.0</ele><time>2026-03-31T14:18:12Z</time></trkpt><trkpt lat="42.94898775242719" lon="-0.8287039061006031"><ele>1507.0</ele><time>2026-03-31T14:18:13Z</time></trkpt><trkpt lat="42.949070823398394" lon="-0.8285066150826579"><ele>1507.0</ele><time>2026-03-31T14:18:14Z</time></trkpt><trkpt lat="42.94915040853392" lon="-0.828317602790215"><ele>1507.0</ele><time>2026-03-31T14:18:15Z</time></trkpt><trkpt lat="42.94924198059453" lon="-0.8281388002951182"><ele>1514.25</ele><time>2026-03-31T14:18:16Z</time></trkpt><trkpt lat="42.949305298880525" lon="-0.8279479680356263"><ele>1521.5</ele><time>2026-03-31T14:18:17Z</time></trkpt><trkpt lat="42.94933364305993" lon="-0.8277487134340409"><ele>1528.75</ele><time>2026-03-31T14:18:18Z</time></trkpt><trkpt lat="42.9493815277622" lon="-0.827568823616053"><ele>1536.0</ele><time>2026-03-31T14:18:19Z</time></trkpt><trkpt lat="42.94939988507202" lon="-0.8273906521333652"><ele>1536.0</ele><time>2026-03-31T14:18:20Z</time></trkpt><trkpt lat="42.94940951859452" lon="-0.8272258075765035"><ele>1536.0</ele><time>2026-03-31T14:18:21Z</time></trkpt><trkpt lat="42.94941507305871" lon="-0.8270645753546824"><ele>1536.0</ele><time>2026-03-31T14:18:22Z</time></trkpt><trkpt lat="42.949421432692255" lon="-0.8269355059918528"><ele>1536.0</ele><time>2026-03-31T14:18:23Z</time></trkpt><trkpt lat="42.949428783587855" lon="-0.8268245848945229"><ele>1536.0</ele><time>2026-03-31T14:18:24Z</time></trkpt><trkpt lat="42.949436609861" lon="-0.8267246688945967"><ele>1536.0</ele><time>2026-03-31T14:18:25Z</time></trkpt><trkpt lat="42.949440250935666" lon="-0.8266361594687975"><ele>1536.0</ele><time>2026-03-31T14:18:26Z</time></trkpt><trkpt lat="42.949444089789154" lon="-0.8264842018499138"><ele>1536.0</ele><time>2026-03-31T14:18:28Z</time></trkpt><trkpt lat="42.94945673749388" lon="-0.8263876667397231"><ele>1536.0</ele><time>2026-03-31T14:18:31Z</time></trkpt><trkpt lat="42.94945098384318" lon="-0.8262909541932659"><ele>1536.0</ele><time>2026-03-31T14:22:30Z</time></trkpt><trkpt lat="42.949461960772574" lon="-0.8262044013941979"><ele>1536.0</ele><time>2026-03-31T14:22:31Z</time></trkpt><trkpt lat="42.94946979889877" lon="-0.8260839947905075"><ele>1536.6</ele><time>2026-03-31T14:22:32Z</time></trkpt><trkpt lat="42.949470877332566" lon="-0.8259635926805965"><ele>1537.1999999999998</ele><time>2026-03-31T14:22:33Z</time></trkpt><trkpt lat="42.949469383419526" lon="-0.8258183468502089"><ele>1537.8000000000002</ele><time>2026-03-31T14:22:34Z</time></trkpt><trkpt lat="42.949468912890026" lon="-0.8256345480539904"><ele>1538.4</ele><time>2026-03-31T14:22:35Z</time></trkpt><trkpt lat="42.94946795892478" lon="-0.8254725645315578"><ele>1539.0</ele><time>2026-03-31T14:22:36Z</time></trkpt><trkpt lat="42.94946387337155" lon="-0.82531363326049"><ele>1541.25</ele><time>2026-03-31T14:22:37Z</time></trkpt><trkpt lat="42.949460653733645" lon="-0.8251457494407366"><ele>1543.5</ele><time>2026-03-31T14:22:38Z</time></trkpt><trkpt lat="42.94945610100281" lon="-0.8249594703157357"><ele>1545.75</ele><time>2026-03-31T14:22:39Z</time></trkpt><trkpt lat="42.949446579406434" lon="-0.8247768705287284"><ele>1548.0</ele><time>2026-03-31T14:22:40Z</time></trkpt><trkpt lat="42.949427968608326" lon="-0.8246120579761632"><ele>1548.0</ele><time>2026-03-31T14:22:41Z</time></trkpt><trkpt lat="42.949388617279986" lon="-0.8244609050387606"><ele>1548.0</ele><time>2026-03-31T14:22:42Z</time></trkpt><trkpt lat="42.94934360455716" lon="-0.8243077064110012"><ele>1548.0</ele><time>2026-03-31T14:22:43Z</time></trkpt><trkpt lat="42.94929353103684" lon="-0.8241467911338208"><ele>1548.0</ele><time>2026-03-31T14:22:44Z</time></trkpt><trkpt lat="42.949239643137034" lon="-0.8239898792953207"><ele>1544.75</ele><time>2026-03-31T14:22:45Z</time></trkpt><trkpt lat="42.9491855516877" lon="-0.8238344389477557"><ele>1541.5</ele><time>2026-03-31T14:22:46Z</time></trkpt><trkpt lat="42.949131947713575" lon="-0.8236730224075179"><ele>1538.25</ele><time>2026-03-31T14:22:47Z</time></trkpt><trkpt lat="42.94908162549551" lon="-0.8235079103746584"><ele>1535.0</ele><time>2026-03-31T14:22:48Z</time></trkpt><trkpt lat="42.94901775675421" lon="-0.8233496682309829"><ele>1535.0</ele><time>2026-03-31T14:22:49Z</time></trkpt><trkpt lat="42.9489713426204" lon="-0.8231707724709385"><ele>1535.0</ele><time>2026-03-31T14:22:50Z</time></trkpt><trkpt lat="42.9489406722383" lon="-0.8229859824354091"><ele>1535.0</ele><time>2026-03-31T14:22:51Z</time></trkpt><trkpt lat="42.94889249281253" lon="-0.8228102274815626"><ele>1535.0</ele><time>2026-03-31T14:22:52Z</time></trkpt><trkpt lat="42.948845901764706" lon="-0.8226320921204352"><ele>1537.0</ele><time>2026-03-31T14:22:53Z</time></trkpt><trkpt lat="42.94879688128477" lon="-0.8224558100034927"><ele>1539.0</ele><time>2026-03-31T14:22:54Z</time></trkpt><trkpt lat="42.94874996202731" lon="-0.8222806634482603"><ele>1541.0</ele><time>2026-03-31T14:22:55Z</time></trkpt><trkpt lat="42.948700323043774" lon="-0.8221053138161817"><ele>1543.0</ele><time>2026-03-31T14:22:56Z</time></trkpt><trkpt lat="42.94865277122139" lon="-0.8219341418378606"><ele>1545.25</ele><time>2026-03-31T14:22:57Z</time></trkpt><trkpt lat="42.948607489638" lon="-0.821767118888531"><ele>1547.5</ele><time>2026-03-31T14:22:58Z</time></trkpt><trkpt lat="42.94856128268888" lon="-0.8216045496646658"><ele>1549.75</ele><time>2026-03-31T14:22:59Z</time></trkpt><trkpt lat="42.94851803260538" lon="-0.8214404204442283"><ele>1552.0</ele><time>2026-03-31T14:23:00Z</time></trkpt><trkpt lat="42.94848062764307" lon="-0.8212766189305016"><ele>1552.0</ele><time>2026-03-31T14:23:01Z</time></trkpt><trkpt lat="42.94844804392907" lon="-0.8211098563337808"><ele>1552.0</ele><time>2026-03-31T14:23:02Z</time></trkpt><trkpt lat="42.948422351192455" lon="-0.8209445441536478"><ele>1552.0</ele><time>2026-03-31T14:23:03Z</time></trkpt><trkpt lat="42.948399317305054" lon="-0.820780619515598"><ele>1552.0</ele><time>2026-03-31T14:23:04Z</time></trkpt><trkpt lat="42.94836256882473" lon="-0.8206188862054722"><ele>1550.5</ele><time>2026-03-31T14:23:05Z</time></trkpt><trkpt lat="42.948356086165624" lon="-0.8204519393127219"><ele>1549.0</ele><time>2026-03-31T14:23:06Z</time></trkpt><trkpt lat="42.948331839558094" lon="-0.8202858812312649"><ele>1547.5</ele><time>2026-03-31T14:23:07Z</time></trkpt><trkpt lat="42.948308517352295" lon="-0.8201191302064855"><ele>1546.0</ele><time>2026-03-31T14:23:08Z</time></trkpt><trkpt lat="42.94828709124809" lon="-0.8199423910824699"><ele>1546.0</ele><time>2026-03-31T14:23:09Z</time></trkpt><trkpt lat="42.948250079386085" lon="-0.819766037442271"><ele>1546.0</ele><time>2026-03-31T14:23:10Z</time></trkpt><trkpt lat="42.948225412693496" lon="-0.8195814845504649"><ele>1546.0</ele><time>2026-03-31T14:23:11Z</time></trkpt><trkpt lat="42.94820491322566" lon="-0.8194178632566055"><ele>1546.0</ele><time>2026-03-31T14:23:12Z</time></trkpt><trkpt lat="42.94818720143856" lon="-0.8192288578274559"><ele>1547.5</ele><time>2026-03-31T14:23:13Z</time></trkpt><trkpt lat="42.94818584833306" lon="-0.8190817718243171"><ele>1549.0</ele><time>2026-03-31T14:23:14Z</time></trkpt><trkpt lat="42.94817961642279" lon="-0.8188914254898969"><ele>1550.5</ele><time>2026-03-31T14:23:15Z</time></trkpt><trkpt lat="42.9481769638974" lon="-0.8186984538170335"><ele>1552.0</ele><time>2026-03-31T14:23:16Z</time></trkpt><trkpt lat="42.94817604623592" lon="-0.8185031182399373"><ele>1552.75</ele><time>2026-03-31T14:23:17Z</time></trkpt><trkpt lat="42.94817021271768" lon="-0.8183096766041925"><ele>1553.5</ele><time>2026-03-31T14:23:18Z</time></trkpt><trkpt lat="42.94817651188494" lon="-0.8181154374677726"><ele>1554.25</ele><time>2026-03-31T14:23:19Z</time></trkpt><trkpt lat="42.94819133563455" lon="-0.8179213546916013"><ele>1555.0</ele><time>2026-03-31T14:23:20Z</time></trkpt><trkpt lat="42.948215475304316" lon="-0.8177286042547892"><ele>1556.0</ele><time>2026-03-31T14:23:21Z</time></trkpt><trkpt lat="42.94824200758562" lon="-0.8175369826300749"><ele>1557.0</ele><time>2026-03-31T14:23:22Z</time></trkpt><trkpt lat="42.94825070093441" lon="-0.8173425674338838"><ele>1558.0</ele><time>2026-03-31T14:23:23Z</time></trkpt><trkpt lat="42.948272058472995" lon="-0.8171493369175857"><ele>1559.0</ele><time>2026-03-31T14:23:24Z</time></trkpt><trkpt lat="42.94829291877742" lon="-0.8169541805147369"><ele>1559.25</ele><time>2026-03-31T14:23:25Z</time></trkpt><trkpt lat="42.94831381971538" lon="-0.8167586439311991"><ele>1559.5</ele><time>2026-03-31T14:23:26Z</time></trkpt><trkpt lat="42.948334733851524" lon="-0.8165629838973147"><ele>1559.75</ele><time>2026-03-31T14:23:27Z</time></trkpt><trkpt lat="42.94835601794101" lon="-0.816363862800692"><ele>1560.0</ele><time>2026-03-31T14:23:28Z</time></trkpt><trkpt lat="42.94837652448952" lon="-0.8161674358441221"><ele>1564.0</ele><time>2026-03-31T14:23:29Z</time></trkpt><trkpt lat="42.94839598572945" lon="-0.8159776887656207"><ele>1568.0</ele><time>2026-03-31T14:23:30Z</time></trkpt><trkpt lat="42.94841669895039" lon="-0.815791712990028"><ele>1572.0</ele><time>2026-03-31T14:23:31Z</time></trkpt><trkpt lat="42.94845807174048" lon="-0.8156138644785041"><ele>1576.0</ele><time>2026-03-31T14:23:32Z</time></trkpt><trkpt lat="42.94848999075548" lon="-0.8154318664986027"><ele>1576.0</ele><time>2026-03-31T14:23:33Z</time></trkpt><trkpt lat="42.94853858062676" lon="-0.8152496788231725"><ele>1576.0</ele><time>2026-03-31T14:23:34Z</time></trkpt><trkpt lat="42.94860834632198" lon="-0.815070561233735"><ele>1576.0</ele><time>2026-03-31T14:23:35Z</time></trkpt><trkpt lat="42.948700105819405" lon="-0.8149163701844061"><ele>1576.0</ele><time>2026-03-31T14:23:36Z</time></trkpt><trkpt lat="42.948767991561" lon="-0.8147886105078939"><ele>1575.0</ele><time>2026-03-31T14:23:37Z</time></trkpt><trkpt lat="42.94882475684878" lon="-0.8146662165289552"><ele>1574.0</ele><time>2026-03-31T14:23:38Z</time></trkpt><trkpt lat="42.948905963963654" lon="-0.8145718645087067"><ele>1573.0</ele><time>2026-03-31T14:23:39Z</time></trkpt><trkpt lat="42.9490175006554" lon="-0.8145134357655768"><ele>1572.0</ele><time>2026-03-31T14:23:40Z</time></trkpt><trkpt lat="42.94913954677939" lon="-0.8145027017407408"><ele>1575.0</ele><time>2026-03-31T14:23:41Z</time></trkpt><trkpt lat="42.949257980734004" lon="-0.8144835912144756"><ele>1578.0</ele><time>2026-03-31T14:23:42Z</time></trkpt><trkpt lat="42.94937315159756" lon="-0.8144561562903013"><ele>1581.0</ele><time>2026-03-31T14:23:43Z</time></trkpt><trkpt lat="42.949482359786664" lon="-0.8143952865630105"><ele>1584.0</ele><time>2026-03-31T14:23:44Z</time></trkpt><trkpt lat="42.94957733707215" lon="-0.8142999365527948"><ele>1584.0</ele><time>2026-03-31T14:23:45Z</time></trkpt><trkpt lat="42.949655416853936" lon="-0.8141747885192132"><ele>1584.0</ele><time>2026-03-31T14:23:46Z</time></trkpt><trkpt lat="42.94969084522516" lon="-0.8140202558531202"><ele>1584.0</ele><time>2026-03-31T14:23:47Z</time></trkpt><trkpt lat="42.94974260266124" lon="-0.8138573747722632"><ele>1584.0</ele><time>2026-03-31T14:23:48Z</time></trkpt><trkpt lat="42.94977949614835" lon="-0.813662973637471"><ele>1581.6666666666665</ele><time>2026-03-31T14:23:49Z</time></trkpt><trkpt lat="42.94981419575805" lon="-0.8134411643223597"><ele>1579.3333333333333</ele><time>2026-03-31T14:23:50Z</time></trkpt><trkpt lat="42.94984216479729" lon="-0.8132146207698853"><ele>1577.0</ele><time>2026-03-31T14:23:51Z</time></trkpt><trkpt lat="42.94986275445441" lon="-0.8129975641804538"><ele>1577.0</ele><time>2026-03-31T14:23:52Z</time></trkpt><trkpt lat="42.94988286455824" lon="-0.8127887780880587"><ele>1577.0</ele><time>2026-03-31T14:23:53Z</time></trkpt><trkpt lat="42.949906546288545" lon="-0.8125810077969539"><ele>1577.0</ele><time>2026-03-31T14:23:54Z</time></trkpt><trkpt lat="42.949928340314855" lon="-0.8123778342658604"><ele>1576.25</ele><time>2026-03-31T14:23:55Z</time></trkpt><trkpt lat="42.949949285271906" lon="-0.8121781839528623"><ele>1575.5</ele><time>2026-03-31T14:23:56Z</time></trkpt><trkpt lat="42.94997183703563" lon="-0.8119813484238635"><ele>1574.75</ele><time>2026-03-31T14:23:57Z</time></trkpt><trkpt lat="42.94999948266248" lon="-0.8117889117825294"><ele>1574.0</ele><time>2026-03-31T14:23:58Z</time></trkpt><trkpt lat="42.950043043153" lon="-0.8116078345502209"><ele>1574.75</ele><time>2026-03-31T14:23:59Z</time></trkpt><trkpt lat="42.95010584515463" lon="-0.8114375122212226"><ele>1575.5</ele><time>2026-03-31T14:24:00Z</time></trkpt><trkpt lat="42.95016199323821" lon="-0.8112665300692185"><ele>1576.25</ele><time>2026-03-31T14:24:01Z</time></trkpt><trkpt lat="42.95024251942605" lon="-0.8111149794201283"><ele>1577.0</ele><time>2026-03-31T14:24:02Z</time></trkpt><trkpt lat="42.95033984494394" lon="-0.810984893940625"><ele>1577.0</ele><time>2026-03-31T14:24:03Z</time></trkpt><trkpt lat="42.95045805452251" lon="-0.8108874772616358"><ele>1577.0</ele><time>2026-03-31T14:24:04Z</time></trkpt><trkpt lat="42.95057710894558" lon="-0.8107971723600985"><ele>1577.0</ele><time>2026-03-31T14:24:05Z</time></trkpt><trkpt lat="42.95071134849805" lon="-0.8107291034675339"><ele>1577.0</ele><time>2026-03-31T14:24:06Z</time></trkpt><trkpt lat="42.95084697630529" lon="-0.8106233933704161"><ele>1577.3333333333333</ele><time>2026-03-31T14:24:07Z</time></trkpt><trkpt lat="42.95099531924032" lon="-0.8105235840818051"><ele>1577.6666666666665</ele><time>2026-03-31T14:24:08Z</time></trkpt><trkpt lat="42.95114181738832" lon="-0.8104309927713057"><ele>1578.0</ele><time>2026-03-31T14:24:09Z</time></trkpt><trkpt lat="42.95128467338469" lon="-0.8103436690460893"><ele>1578.0</ele><time>2026-03-31T14:24:10Z</time></trkpt><trkpt lat="42.95142669426014" lon="-0.8102613120116094"><ele>1578.0</ele><time>2026-03-31T14:24:11Z</time></trkpt><trkpt lat="42.95157115482992" lon="-0.8101779292396815"><ele>1578.0</ele><time>2026-03-31T14:24:12Z</time></trkpt><trkpt lat="42.951716993895374" lon="-0.8100936325867211"><ele>1576.25</ele><time>2026-03-31T14:24:13Z</time></trkpt><trkpt lat="42.95185705986487" lon="-0.8100126724836961"><ele>1574.5</ele><time>2026-03-31T14:24:14Z</time></trkpt><trkpt lat="42.951989638437695" lon="-0.8099351370094551"><ele>1572.75</ele><time>2026-03-31T14:24:15Z</time></trkpt><trkpt lat="42.95210157184721" lon="-0.8098564814397605"><ele>1571.0</ele><time>2026-03-31T14:24:16Z</time></trkpt><trkpt lat="42.9521960648995" lon="-0.8097696709983332"><ele>1571.0</ele><time>2026-03-31T14:24:17Z</time></trkpt><trkpt lat="42.95226909595381" lon="-0.8096782452973008"><ele>1571.0</ele><time>2026-03-31T14:24:18Z</time></trkpt><trkpt lat="42.952323983301916" lon="-0.8095760518555303"><ele>1571.0</ele><time>2026-03-31T14:24:19Z</time></trkpt><trkpt lat="42.95237333668937" lon="-0.8094461923396956"><ele>1571.0</ele><time>2026-03-31T14:24:20Z</time></trkpt><trkpt lat="42.952403624243" lon="-0.8092813913674898"><ele>1571.0</ele><time>2026-03-31T14:24:21Z</time></trkpt><trkpt lat="42.95242606246346" lon="-0.8091041640729543"><ele>1570.5</ele><time>2026-03-31T14:24:22Z</time></trkpt><trkpt lat="42.9524491945917" lon="-0.8089214603881997"><ele>1570.0</ele><time>2026-03-31T14:24:23Z</time></trkpt><trkpt lat="42.9524715506316" lon="-0.808744986143748"><ele>1569.5</ele><time>2026-03-31T14:24:24Z</time></trkpt><trkpt lat="42.952501883327066" lon="-0.8085731504482965"><ele>1569.0</ele><time>2026-03-31T14:24:25Z</time></trkpt><trkpt lat="42.952540021198494" lon="-0.8084106460503392"><ele>1569.0</ele><time>2026-03-31T14:24:26Z</time></trkpt><trkpt lat="42.95259274383519" lon="-0.8082557074196177"><ele>1569.0</ele><time>2026-03-31T14:24:27Z</time></trkpt><trkpt lat="42.952680562866" lon="-0.808122081791345"><ele>1569.0</ele><time>2026-03-31T14:24:28Z</time></trkpt><trkpt lat="42.95279302201291" lon="-0.80804048277624"><ele>1569.0</ele><time>2026-03-31T14:24:29Z</time></trkpt><trkpt lat="42.952905149783405" lon="-0.8079560144577226"><ele>1569.0</ele><time>2026-03-31T14:24:30Z</time></trkpt><trkpt lat="42.95302917546984" lon="-0.8078908738224306"><ele>1569.0</ele><time>2026-03-31T14:24:31Z</time></trkpt><trkpt lat="42.95315693832644" lon="-0.8078392828698453"><ele>1569.0</ele><time>2026-03-31T14:24:32Z</time></trkpt><trkpt lat="42.95328967923861" lon="-0.8077939657093663"><ele>1569.0</ele><time>2026-03-31T14:24:33Z</time></trkpt><trkpt lat="42.95342577541167" lon="-0.8077468045454623"><ele>1569.75</ele><time>2026-03-31T14:24:34Z</time></trkpt><trkpt lat="42.953561054695065" lon="-0.8076911108708917"><ele>1570.5</ele><time>2026-03-31T14:24:35Z</time></trkpt><trkpt lat="42.95368482548271" lon="-0.807628496044592"><ele>1571.25</ele><time>2026-03-31T14:24:36Z</time></trkpt><trkpt lat="42.95378870294834" lon="-0.8075594223767333"><ele>1572.0</ele><time>2026-03-31T14:24:37Z</time></trkpt><trkpt lat="42.95389511205983" lon="-0.8074664618032034"><ele>1572.0</ele><time>2026-03-31T14:24:38Z</time></trkpt><trkpt lat="42.95398897070086" lon="-0.8073203119746372"><ele>1572.0</ele><time>2026-03-31T14:24:39Z</time></trkpt><trkpt lat="42.95408774889213" lon="-0.8071753490845064"><ele>1572.0</ele><time>2026-03-31T14:24:40Z</time></trkpt><trkpt lat="42.95419537190188" lon="-0.8070433362870708"><ele>1572.0</ele><time>2026-03-31T14:24:41Z</time></trkpt><trkpt lat="42.954263296154885" lon="-0.8068658965855858"><ele>1567.75</ele><time>2026-03-31T14:24:42Z</time></trkpt><trkpt lat="42.95433295021794" lon="-0.8066990206164054"><ele>1563.5</ele><time>2026-03-31T14:24:43Z</time></trkpt><trkpt lat="42.954394316309134" lon="-0.8065265194488578"><ele>1559.25</ele><time>2026-03-31T14:24:44Z</time></trkpt><trkpt lat="42.954446097890035" lon="-0.8063445404996009"><ele>1555.0</ele><time>2026-03-31T14:24:45Z</time></trkpt><trkpt lat="42.95451164939411" lon="-0.8061742077019728"><ele>1555.0</ele><time>2026-03-31T14:24:46Z</time></trkpt><trkpt lat="42.95460418131255" lon="-0.8060272737512406"><ele>1555.0</ele><time>2026-03-31T14:24:47Z</time></trkpt><trkpt lat="42.95470255976383" lon="-0.805889899548018"><ele>1555.0</ele><time>2026-03-31T14:24:48Z</time></trkpt><trkpt lat="42.95478908715296" lon="-0.805738904578926"><ele>1555.0</ele><time>2026-03-31T14:24:49Z</time></trkpt><trkpt lat="42.954888090362886" lon="-0.8056013493514906"><ele>1557.75</ele><time>2026-03-31T14:24:50Z</time></trkpt><trkpt lat="42.954984506089396" lon="-0.8054682579019552"><ele>1560.5</ele><time>2026-03-31T14:24:51Z</time></trkpt><trkpt lat="42.95507264546562" lon="-0.8053513198892784"><ele>1563.25</ele><time>2026-03-31T14:24:52Z</time></trkpt><trkpt lat="42.95515817272031" lon="-0.8052422883211616"><ele>1566.0</ele><time>2026-03-31T14:24:53Z</time></trkpt><trkpt lat="42.9552457303213" lon="-0.8051401061139852"><ele>1571.75</ele><time>2026-03-31T14:24:54Z</time></trkpt><trkpt lat="42.955351849934964" lon="-0.8050866252079801"><ele>1577.5</ele><time>2026-03-31T14:24:55Z</time></trkpt><trkpt lat="42.955460872365585" lon="-0.8050527339811306"><ele>1583.25</ele><time>2026-03-31T14:24:56Z</time></trkpt><trkpt lat="42.95557716890031" lon="-0.8050592987226323"><ele>1589.0</ele><time>2026-03-31T14:24:57Z</time></trkpt><trkpt lat="42.955698580675005" lon="-0.8050993343628087"><ele>1583.25</ele><time>2026-03-31T14:24:58Z</time></trkpt><trkpt lat="42.955816837171234" lon="-0.8051650135969403"><ele>1577.5</ele><time>2026-03-31T14:24:59Z</time></trkpt><trkpt lat="42.95594055974311" lon="-0.8052360505215442"><ele>1571.75</ele><time>2026-03-31T14:25:00Z</time></trkpt><trkpt lat="42.95606384203339" lon="-0.8052902130241689"><ele>1566.0</ele><time>2026-03-31T14:25:01Z</time></trkpt><trkpt lat="42.95617561440341" lon="-0.805316976391734"><ele>1565.1999999999998</ele><time>2026-03-31T14:25:02Z</time></trkpt><trkpt lat="42.95627544257305" lon="-0.8052986858097737"><ele>1564.3999999999999</ele><time>2026-03-31T14:25:03Z</time></trkpt><trkpt lat="42.956371007531864" lon="-0.8052406282722174"><ele>1563.6</ele><time>2026-03-31T14:25:04Z</time></trkpt><trkpt lat="42.95644551477504" lon="-0.8051259827165458"><ele>1562.8</ele><time>2026-03-31T14:25:05Z</time></trkpt><trkpt lat="42.956513333095856" lon="-0.8050081526968199"><ele>1562.0</ele><time>2026-03-31T14:25:06Z</time></trkpt><trkpt lat="42.956590817268115" lon="-0.8048763556308203"><ele>1564.0</ele><time>2026-03-31T14:25:07Z</time></trkpt><trkpt lat="42.95664985625343" lon="-0.8047123550308388"><ele>1566.0</ele><time>2026-03-31T14:25:08Z</time></trkpt><trkpt lat="42.95668469548741" lon="-0.8045304121060899"><ele>1568.0</ele><time>2026-03-31T14:25:09Z</time></trkpt><trkpt lat="42.956749218921196" lon="-0.8043524394836477"><ele>1570.0</ele><time>2026-03-31T14:25:10Z</time></trkpt><trkpt lat="42.956795511799626" lon="-0.8041614553767207"><ele>1572.3333333333335</ele><time>2026-03-31T14:25:11Z</time></trkpt><trkpt lat="42.95684825640851" lon="-0.8039688198787149"><ele>1574.6666666666665</ele><time>2026-03-31T14:25:12Z</time></trkpt><trkpt lat="42.95690165333925" lon="-0.8037709399947371"><ele>1577.0</ele><time>2026-03-31T14:25:13Z</time></trkpt><trkpt lat="42.956955111399324" lon="-0.8035567480137026"><ele>1578.6666666666665</ele><time>2026-03-31T14:25:14Z</time></trkpt><trkpt lat="42.957005572007915" lon="-0.8033433013359234"><ele>1580.3333333333335</ele><time>2026-03-31T14:25:15Z</time></trkpt><trkpt lat="42.95705812753626" lon="-0.8031231980184385"><ele>1582.0</ele><time>2026-03-31T14:25:16Z</time></trkpt><trkpt lat="42.957111132797046" lon="-0.802904918482025"><ele>1582.0</ele><time>2026-03-31T14:25:17Z</time></trkpt><trkpt lat="42.95716533808658" lon="-0.8026889302925888"><ele>1582.0</ele><time>2026-03-31T14:25:18Z</time></trkpt><trkpt lat="42.95722050484669" lon="-0.8024715430635125"><ele>1582.0</ele><time>2026-03-31T14:25:19Z</time></trkpt><trkpt lat="42.957272705169075" lon="-0.8022542902982205"><ele>1582.5</ele><time>2026-03-31T14:25:20Z</time></trkpt><trkpt lat="42.95732254620678" lon="-0.8020462856668228"><ele>1583.0</ele><time>2026-03-31T14:25:21Z</time></trkpt><trkpt lat="42.957371944282166" lon="-0.8018537024671852"><ele>1583.5</ele><time>2026-03-31T14:25:22Z</time></trkpt><trkpt lat="42.9574245646686" lon="-0.8016766250345427"><ele>1584.0</ele><time>2026-03-31T14:25:23Z</time></trkpt><trkpt lat="42.95748277764761" lon="-0.8015123661157162"><ele>1586.5</ele><time>2026-03-31T14:25:24Z</time></trkpt><trkpt lat="42.957548440814996" lon="-0.8013599615976059"><ele>1589.0</ele><time>2026-03-31T14:25:25Z</time></trkpt><trkpt lat="42.95762380248094" lon="-0.8012183173527623"><ele>1591.5</ele><time>2026-03-31T14:25:26Z</time></trkpt><trkpt lat="42.95770966193998" lon="-0.8010840371156589"><ele>1594.0</ele><time>2026-03-31T14:25:27Z</time></trkpt><trkpt lat="42.95780492724848" lon="-0.8009491890252035"><ele>1594.6666666666667</ele><time>2026-03-31T14:25:28Z</time></trkpt><trkpt lat="42.957912669755345" lon="-0.8008042104867197"><ele>1595.3333333333335</ele><time>2026-03-31T14:25:29Z</time></trkpt><trkpt lat="42.95803456995348" lon="-0.8006579069302622"><ele>1596.0</ele><time>2026-03-31T14:25:30Z</time></trkpt><trkpt lat="42.95816568633127" lon="-0.8005120137810772"><ele>1596.0</ele><time>2026-03-31T14:25:31Z</time></trkpt><trkpt lat="42.95829838320844" lon="-0.8003705505785021"><ele>1596.0</ele><time>2026-03-31T14:25:32Z</time></trkpt><trkpt lat="42.95842628119282" lon="-0.8002301142420845"><ele>1596.0</ele><time>2026-03-31T14:25:33Z</time></trkpt><trkpt lat="42.95854170938783" lon="-0.800083256979132"><ele>1596.3333333333335</ele><time>2026-03-31T14:25:34Z</time></trkpt><trkpt lat="42.9586283788153" lon="-0.7999093708662076"><ele>1596.6666666666667</ele><time>2026-03-31T14:25:35Z</time></trkpt><trkpt lat="42.95871056673668" lon="-0.7997392749408075"><ele>1597.0</ele><time>2026-03-31T14:25:36Z</time></trkpt><trkpt lat="42.958800059102536" lon="-0.7995663139355368"><ele>1597.0</ele><time>2026-03-31T14:25:37Z</time></trkpt><trkpt lat="42.95887677716022" lon="-0.7993772017664027"><ele>1597.0</ele><time>2026-03-31T14:25:38Z</time></trkpt><trkpt lat="42.95896266667901" lon="-0.7991749254960531"><ele>1597.0</ele><time>2026-03-31T14:25:39Z</time></trkpt><trkpt lat="42.959051332456944" lon="-0.7989674704001092"><ele>1596.0</ele><time>2026-03-31T14:25:40Z</time></trkpt><trkpt lat="42.959134643807396" lon="-0.7987437389108285"><ele>1595.0</ele><time>2026-03-31T14:25:41Z</time></trkpt><trkpt lat="42.95923500196539" lon="-0.7985311304376923"><ele>1594.0</ele><time>2026-03-31T14:25:42Z</time></trkpt><trkpt lat="42.9593526609147" lon="-0.7983360146263256"><ele>1594.0</ele><time>2026-03-31T14:25:43Z</time></trkpt><trkpt lat="42.959458011732934" lon="-0.7981255673186033"><ele>1594.0</ele><time>2026-03-31T14:25:44Z</time></trkpt><trkpt lat="42.95956549846308" lon="-0.7979111474658825"><ele>1594.0</ele><time>2026-03-31T14:25:45Z</time></trkpt><trkpt lat="42.959682525614426" lon="-0.7976914383777985"><ele>1592.3333333333335</ele><time>2026-03-31T14:25:46Z</time></trkpt><trkpt lat="42.959797643833994" lon="-0.7974719549417314"><ele>1590.6666666666665</ele><time>2026-03-31T14:25:47Z</time></trkpt><trkpt lat="42.95990797040039" lon="-0.7972501843773965"><ele>1589.0</ele><time>2026-03-31T14:25:48Z</time></trkpt><trkpt lat="42.960012906928775" lon="-0.7970255147341736"><ele>1589.3333333333333</ele><time>2026-03-31T14:25:49Z</time></trkpt><trkpt lat="42.96010618644101" lon="-0.7967979847669759"><ele>1589.6666666666665</ele><time>2026-03-31T14:25:50Z</time></trkpt><trkpt lat="42.960193831929914" lon="-0.7965794141814395"><ele>1590.0</ele><time>2026-03-31T14:25:51Z</time></trkpt><trkpt lat="42.96027402450889" lon="-0.7963643105285249"><ele>1590.0</ele><time>2026-03-31T14:25:52Z</time></trkpt><trkpt lat="42.960351854965886" lon="-0.7961396740575923"><ele>1590.0</ele><time>2026-03-31T14:25:53Z</time></trkpt><trkpt lat="42.960428318383556" lon="-0.7959089338864541"><ele>1590.0</ele><time>2026-03-31T14:25:54Z</time></trkpt><trkpt lat="42.960512771398086" lon="-0.7956748117301565"><ele>1590.0</ele><time>2026-03-31T14:25:55Z</time></trkpt><trkpt lat="42.96057874256247" lon="-0.795427705063038"><ele>1590.0</ele><time>2026-03-31T14:25:56Z</time></trkpt><trkpt lat="42.96067397735692" lon="-0.7951982361001054"><ele>1590.0</ele><time>2026-03-31T14:25:57Z</time></trkpt><trkpt lat="42.96073862445819" lon="-0.7949487850416451"><ele>1591.3333333333335</ele><time>2026-03-31T14:25:58Z</time></trkpt><trkpt lat="42.96081657001706" lon="-0.7947138233748519"><ele>1592.6666666666667</ele><time>2026-03-31T14:25:59Z</time></trkpt><trkpt lat="42.96089531941094" lon="-0.7944800963590409"><ele>1594.0</ele><time>2026-03-31T14:26:00Z</time></trkpt><trkpt lat="42.960987127330135" lon="-0.7942628265361618"><ele>1598.3333333333335</ele><time>2026-03-31T14:26:01Z</time></trkpt><trkpt lat="42.961056828251635" lon="-0.7940539155861861"><ele>1602.6666666666665</ele><time>2026-03-31T14:26:02Z</time></trkpt><trkpt lat="42.96110737397301" lon="-0.7938523758223072"><ele>1607.0</ele><time>2026-03-31T14:26:03Z</time></trkpt><trkpt lat="42.9611649837413" lon="-0.7936759748580969"><ele>1607.0</ele><time>2026-03-31T14:26:04Z</time></trkpt><trkpt lat="42.96121501644496" lon="-0.793515466451764"><ele>1607.0</ele><time>2026-03-31T14:26:05Z</time></trkpt><trkpt lat="42.96125834287502" lon="-0.7933655339688366"><ele>1607.0</ele><time>2026-03-31T14:26:06Z</time></trkpt><trkpt lat="42.96129881255169" lon="-0.7932087602155893"><ele>1607.0</ele><time>2026-03-31T14:26:07Z</time></trkpt><trkpt lat="42.96134086648799" lon="-0.7930184708857927"><ele>1602.0</ele><time>2026-03-31T14:26:08Z</time></trkpt><trkpt lat="42.961394221311096" lon="-0.7928275917058544"><ele>1597.0</ele><time>2026-03-31T14:26:09Z</time></trkpt><trkpt lat="42.96142606593348" lon="-0.7926064247440209"><ele>1592.0</ele><time>2026-03-31T14:26:10Z</time></trkpt><trkpt lat="42.96146553301445" lon="-0.7923756700863871"><ele>1593.3333333333333</ele><time>2026-03-31T14:26:11Z</time></trkpt><trkpt lat="42.9615102707586" lon="-0.7921349321605907"><ele>1594.6666666666665</ele><time>2026-03-31T14:26:12Z</time></trkpt><trkpt lat="42.9615524997204" lon="-0.7918994282850841"><ele>1596.0</ele><time>2026-03-31T14:26:13Z</time></trkpt><trkpt lat="42.96159484125241" lon="-0.7916676622574511"><ele>1596.0</ele><time>2026-03-31T14:26:14Z</time></trkpt><trkpt lat="42.961629786842984" lon="-0.7914444069469636"><ele>1596.0</ele><time>2026-03-31T14:26:15Z</time></trkpt><trkpt lat="42.961671473869735" lon="-0.7912053308389909"><ele>1596.0</ele><time>2026-03-31T14:26:16Z</time></trkpt><trkpt lat="42.96171182625362" lon="-0.7909650204871296"><ele>1598.0</ele><time>2026-03-31T14:26:17Z</time></trkpt><trkpt lat="42.96175827256271" lon="-0.7907148779921732"><ele>1600.0</ele><time>2026-03-31T14:26:18Z</time></trkpt><trkpt lat="42.96180258099412" lon="-0.7904799135521146"><ele>1602.0</ele><time>2026-03-31T14:26:19Z</time></trkpt><trkpt lat="42.96185130174608" lon="-0.7902512597871744"><ele>1604.3333333333335</ele><time>2026-03-31T14:26:20Z</time></trkpt><trkpt lat="42.96190198362394" lon="-0.7900297859544839"><ele>1606.6666666666667</ele><time>2026-03-31T14:26:21Z</time></trkpt><trkpt lat="42.96195668770001" lon="-0.789811469320655"><ele>1609.0</ele><time>2026-03-31T14:26:22Z</time></trkpt><trkpt lat="42.96203279133714" lon="-0.78959296860788"><ele>1609.0</ele><time>2026-03-31T14:26:23Z</time></trkpt><trkpt lat="42.962105449056644" lon="-0.7893790949020411"><ele>1609.0</ele><time>2026-03-31T14:26:24Z</time></trkpt><trkpt lat="42.96218373568576" lon="-0.7891642148580308"><ele>1609.0</ele><time>2026-03-31T14:26:25Z</time></trkpt><trkpt lat="42.962261244386525" lon="-0.7889561843739844"><ele>1607.0</ele><time>2026-03-31T14:26:26Z</time></trkpt><trkpt lat="42.96232408845972" lon="-0.7887468993342446"><ele>1605.0</ele><time>2026-03-31T14:26:27Z</time></trkpt><trkpt lat="42.96240109351127" lon="-0.7885416065940353"><ele>1603.0</ele><time>2026-03-31T14:26:28Z</time></trkpt><trkpt lat="42.96247817564316" lon="-0.7883264013599091"><ele>1604.0</ele><time>2026-03-31T14:26:29Z</time></trkpt><trkpt lat="42.962549752824124" lon="-0.7881093281871074"><ele>1605.0</ele><time>2026-03-31T14:26:30Z</time></trkpt><trkpt lat="42.962611693700914" lon="-0.7878868368623159"><ele>1606.0</ele><time>2026-03-31T14:26:31Z</time></trkpt><trkpt lat="42.962664683257096" lon="-0.7876543622905486"><ele>1606.0</ele><time>2026-03-31T14:26:32Z</time></trkpt><trkpt lat="42.9627070460027" lon="-0.7874106628784792"><ele>1606.0</ele><time>2026-03-31T14:26:33Z</time></trkpt><trkpt lat="42.962736652562214" lon="-0.7871567956371526"><ele>1606.0</ele><time>2026-03-31T14:26:34Z</time></trkpt><trkpt lat="42.9627656216099" lon="-0.7868960391003437"><ele>1606.3333333333335</ele><time>2026-03-31T14:26:35Z</time></trkpt><trkpt lat="42.962794853030495" lon="-0.7866331891332342"><ele>1606.6666666666665</ele><time>2026-03-31T14:26:36Z</time></trkpt><trkpt lat="42.962824494553686" lon="-0.7863719272980849"><ele>1607.0</ele><time>2026-03-31T14:26:37Z</time></trkpt><trkpt lat="42.96285895141672" lon="-0.7861128448201988"><ele>1605.0</ele><time>2026-03-31T14:26:38Z</time></trkpt><trkpt lat="42.962915311333184" lon="-0.7858609177185137"><ele>1603.0</ele><time>2026-03-31T14:26:39Z</time></trkpt><trkpt lat="42.962964525969255" lon="-0.7856114320924987"><ele>1601.0</ele><time>2026-03-31T14:26:40Z</time></trkpt><trkpt lat="42.96302922304488" lon="-0.7853683337756567"><ele>1597.0</ele><time>2026-03-31T14:26:41Z</time></trkpt><trkpt lat="42.96310199555765" lon="-0.7851279426862895"><ele>1593.0</ele><time>2026-03-31T14:26:42Z</time></trkpt><trkpt lat="42.96318175924566" lon="-0.7848899532807763"><ele>1589.0</ele><time>2026-03-31T14:26:43Z</time></trkpt><trkpt lat="42.96326245362237" lon="-0.7846518354442752"><ele>1589.0</ele><time>2026-03-31T14:26:44Z</time></trkpt><trkpt lat="42.96332468372145" lon="-0.7844132916650904"><ele>1589.0</ele><time>2026-03-31T14:26:45Z</time></trkpt><trkpt lat="42.96340844781635" lon="-0.7841848184333712"><ele>1589.0</ele><time>2026-03-31T14:26:46Z</time></trkpt><trkpt lat="42.96351302314544" lon="-0.7839735198385368"><ele>1590.6666666666665</ele><time>2026-03-31T14:26:47Z</time></trkpt><trkpt lat="42.96359473841401" lon="-0.7837668685978545"><ele>1592.3333333333335</ele><time>2026-03-31T14:26:48Z</time></trkpt><trkpt lat="42.963654516070086" lon="-0.7835387564351969"><ele>1594.0</ele><time>2026-03-31T14:26:49Z</time></trkpt><trkpt lat="42.9637038258914" lon="-0.7833140319137347"><ele>1594.0</ele><time>2026-03-31T14:26:50Z</time></trkpt><trkpt lat="42.96373537389918" lon="-0.7830814182538167"><ele>1594.0</ele><time>2026-03-31T14:26:51Z</time></trkpt><trkpt lat="42.963757552188554" lon="-0.7828455182037466"><ele>1594.0</ele><time>2026-03-31T14:26:52Z</time></trkpt><trkpt lat="42.9637910148821" lon="-0.7826076694375519"><ele>1598.0</ele><time>2026-03-31T14:26:53Z</time></trkpt><trkpt lat="42.963843813710156" lon="-0.7823838806265192"><ele>1602.0</ele><time>2026-03-31T14:26:54Z</time></trkpt><trkpt lat="42.9638720044018" lon="-0.7821499837241465"><ele>1606.0</ele><time>2026-03-31T14:26:55Z</time></trkpt><trkpt lat="42.96392066457651" lon="-0.78195475811395"><ele>1606.0</ele><time>2026-03-31T14:26:56Z</time></trkpt><trkpt lat="42.963943055838186" lon="-0.7817439881989791"><ele>1606.0</ele><time>2026-03-31T14:26:57Z</time></trkpt><trkpt lat="42.963937374261384" lon="-0.7815356224657891"><ele>1606.0</ele><time>2026-03-31T14:26:58Z</time></trkpt><trkpt lat="42.96394682521983" lon="-0.781332386571246"><ele>1606.0</ele><time>2026-03-31T14:26:59Z</time></trkpt><trkpt lat="42.96392308289761" lon="-0.7811347031397712"><ele>1606.0</ele><time>2026-03-31T14:27:00Z</time></trkpt><trkpt lat="42.96387835731604" lon="-0.780951738448248"><ele>1606.0</ele><time>2026-03-31T14:27:01Z</time></trkpt><trkpt lat="42.96379007702016" lon="-0.7807824359453769"><ele>1606.0</ele><time>2026-03-31T14:27:02Z</time></trkpt><trkpt lat="42.96370923385549" lon="-0.7806196186578227"><ele>1609.0</ele><time>2026-03-31T14:27:03Z</time></trkpt><trkpt lat="42.96363597265913" lon="-0.7804385116641573"><ele>1612.0</ele><time>2026-03-31T14:27:04Z</time></trkpt><trkpt lat="42.96355083923274" lon="-0.7802656259965569"><ele>1615.0</ele><time>2026-03-31T14:27:05Z</time></trkpt><trkpt lat="42.963476195375975" lon="-0.7800851741034306"><ele>1619.0</ele><time>2026-03-31T14:27:06Z</time></trkpt><trkpt lat="42.96342565781906" lon="-0.7798954290145631"><ele>1623.0</ele><time>2026-03-31T14:27:07Z</time></trkpt><trkpt lat="42.96337123365666" lon="-0.7797178739368769"><ele>1627.0</ele><time>2026-03-31T14:27:08Z</time></trkpt><trkpt lat="42.963278978827326" lon="-0.7795848486998023"><ele>1631.0</ele><time>2026-03-31T14:27:09Z</time></trkpt><trkpt lat="42.963165333371784" lon="-0.7795078501278575"><ele>1622.75</ele><time>2026-03-31T14:27:10Z</time></trkpt><trkpt lat="42.96304167070155" lon="-0.7794754633449665"><ele>1614.5</ele><time>2026-03-31T14:27:11Z</time></trkpt><trkpt lat="42.96291080561203" lon="-0.7794768068592695"><ele>1606.25</ele><time>2026-03-31T14:27:12Z</time></trkpt><trkpt lat="42.96277719846967" lon="-0.7794828895187101"><ele>1598.0</ele><time>2026-03-31T14:27:13Z</time></trkpt><trkpt lat="42.96264654755301" lon="-0.7794562397777222"><ele>1598.25</ele><time>2026-03-31T14:27:14Z</time></trkpt><trkpt lat="42.96252775155935" lon="-0.7793788628802241"><ele>1598.5</ele><time>2026-03-31T14:27:15Z</time></trkpt><trkpt lat="42.96241947103705" lon="-0.7792651589306526"><ele>1598.75</ele><time>2026-03-31T14:27:16Z</time></trkpt><trkpt lat="42.96233457329158" lon="-0.7791333847472478"><ele>1599.0</ele><time>2026-03-31T14:27:17Z</time></trkpt><trkpt lat="42.96228172566422" lon="-0.7789787835972994"><ele>1602.5</ele><time>2026-03-31T14:27:18Z</time></trkpt><trkpt lat="42.962258239466074" lon="-0.7788030425801915"><ele>1606.0</ele><time>2026-03-31T14:27:19Z</time></trkpt><trkpt lat="42.96224939567109" lon="-0.7786128214364895"><ele>1609.5</ele><time>2026-03-31T14:27:20Z</time></trkpt><trkpt lat="42.96222927248873" lon="-0.7784163564019163"><ele>1613.0</ele><time>2026-03-31T14:27:21Z</time></trkpt><trkpt lat="42.96219553398281" lon="-0.7782290168618347"><ele>1617.0</ele><time>2026-03-31T14:27:22Z</time></trkpt><trkpt lat="42.962142327953266" lon="-0.7780639556047546"><ele>1621.0</ele><time>2026-03-31T14:27:23Z</time></trkpt><trkpt lat="42.96206244158696" lon="-0.7779293389301625"><ele>1625.0</ele><time>2026-03-31T14:27:24Z</time></trkpt><trkpt lat="42.961947359045986" lon="-0.7778497731304682"><ele>1629.0</ele><time>2026-03-31T14:27:25Z</time></trkpt><trkpt lat="42.96182840177021" lon="-0.777769345053578"><ele>1627.5</ele><time>2026-03-31T14:27:26Z</time></trkpt><trkpt lat="42.96170013579101" lon="-0.7776670359445704"><ele>1626.0</ele><time>2026-03-31T14:27:27Z</time></trkpt><trkpt lat="42.961564015910014" lon="-0.7775840853269008"><ele>1624.5</ele><time>2026-03-31T14:27:28Z</time></trkpt><trkpt lat="42.96142888562823" lon="-0.7774979386560524"><ele>1623.0</ele><time>2026-03-31T14:27:29Z</time></trkpt><trkpt lat="42.96130746734777" lon="-0.7774238867272576"><ele>1623.0</ele><time>2026-03-31T14:27:30Z</time></trkpt><trkpt lat="42.961204228077314" lon="-0.7773649109967636"><ele>1623.0</ele><time>2026-03-31T14:27:31Z</time></trkpt><trkpt lat="42.96112129280619" lon="-0.7773103139516776"><ele>1623.0</ele><time>2026-03-31T14:27:32Z</time></trkpt><trkpt lat="42.96105779196764" lon="-0.7772449109421226"><ele>1623.0</ele><time>2026-03-31T14:27:33Z</time></trkpt><trkpt lat="42.961013995192125" lon="-0.7771455043560141"><ele>1623.0</ele><time>2026-03-31T14:27:34Z</time></trkpt><trkpt lat="42.961006093990974" lon="-0.7770102175128754"><ele>1623.0</ele><time>2026-03-31T14:27:35Z</time></trkpt><trkpt lat="42.96103409477442" lon="-0.7768815730550979"><ele>1623.0</ele><time>2026-03-31T14:27:36Z</time></trkpt><trkpt lat="42.96110072822803" lon="-0.7767748106213411"><ele>1623.0</ele><time>2026-03-31T14:27:37Z</time></trkpt><trkpt lat="42.96119488483022" lon="-0.7767089432558077"><ele>1623.0</ele><time>2026-03-31T14:27:38Z</time></trkpt><trkpt lat="42.96131345803846" lon="-0.776684384989536"><ele>1623.0</ele><time>2026-03-31T14:27:39Z</time></trkpt><trkpt lat="42.96144632999436" lon="-0.7766846828010255"><ele>1626.75</ele><time>2026-03-31T14:27:40Z</time></trkpt><trkpt lat="42.961593659122215" lon="-0.7766925585942576"><ele>1630.5</ele><time>2026-03-31T14:27:41Z</time></trkpt><trkpt lat="42.96174251772636" lon="-0.7767014280787892"><ele>1634.25</ele><time>2026-03-31T14:27:42Z</time></trkpt><trkpt lat="42.96188256566816" lon="-0.7767045342459711"><ele>1638.0</ele><time>2026-03-31T14:27:43Z</time></trkpt><trkpt lat="42.96203446144722" lon="-0.7766983302783941"><ele>1640.75</ele><time>2026-03-31T14:27:44Z</time></trkpt><trkpt lat="42.96218463602035" lon="-0.776695231184097"><ele>1643.5</ele><time>2026-03-31T14:27:45Z</time></trkpt><trkpt lat="42.96231225820276" lon="-0.7766938462210202"><ele>1646.25</ele><time>2026-03-31T14:27:46Z</time></trkpt><trkpt lat="42.96243096765677" lon="-0.7766821588188018"><ele>1649.0</ele><time>2026-03-31T14:27:47Z</time></trkpt><trkpt lat="42.96254794552935" lon="-0.7766535738219973"><ele>1655.5</ele><time>2026-03-31T14:27:48Z</time></trkpt><trkpt lat="42.96265504123545" lon="-0.7765901922273726"><ele>1662.0</ele><time>2026-03-31T14:27:49Z</time></trkpt><trkpt lat="42.96274712411486" lon="-0.776488020998842"><ele>1668.5</ele><time>2026-03-31T14:27:50Z</time></trkpt><trkpt lat="42.96279600511751" lon="-0.776341831950951"><ele>1675.0</ele><time>2026-03-31T14:27:51Z</time></trkpt><trkpt lat="42.96282724291702" lon="-0.776191818222905"><ele>1675.0</ele><time>2026-03-31T14:27:52Z</time></trkpt><trkpt lat="42.96284892365856" lon="-0.7760223359698752"><ele>1675.0</ele><time>2026-03-31T14:27:53Z</time></trkpt><trkpt lat="42.962872464437666" lon="-0.7758335179783197"><ele>1675.0</ele><time>2026-03-31T14:27:54Z</time></trkpt><trkpt lat="42.962876399499045" lon="-0.77564410675141"><ele>1675.0</ele><time>2026-03-31T14:27:55Z</time></trkpt><trkpt lat="42.96286095658489" lon="-0.7754558167194856"><ele>1675.75</ele><time>2026-03-31T14:27:56Z</time></trkpt><trkpt lat="42.962818766586686" lon="-0.7752665403268935"><ele>1676.5</ele><time>2026-03-31T14:27:57Z</time></trkpt><trkpt lat="42.96273290755931" lon="-0.7750995046603093"><ele>1677.25</ele><time>2026-03-31T14:27:58Z</time></trkpt><trkpt lat="42.96265785047233" lon="-0.7749221623463256"><ele>1678.0</ele><time>2026-03-31T14:27:59Z</time></trkpt><trkpt lat="42.96259326476012" lon="-0.7747333787419344"><ele>1672.3333333333335</ele><time>2026-03-31T14:28:00Z</time></trkpt><trkpt lat="42.96251021582169" lon="-0.7745543397809574"><ele>1666.6666666666665</ele><time>2026-03-31T14:28:01Z</time></trkpt><trkpt lat="42.962425578333786" lon="-0.774354573353067"><ele>1661.0</ele><time>2026-03-31T14:28:02Z</time></trkpt><trkpt lat="42.96233841647946" lon="-0.7741600856110671"><ele>1661.0</ele><time>2026-03-31T14:28:03Z</time></trkpt><trkpt lat="42.96226583827428" lon="-0.7740056371099318"><ele>1661.0</ele><time>2026-03-31T14:28:04Z</time></trkpt><trkpt lat="42.96220034640268" lon="-0.7738736548314209"><ele>1661.0</ele><time>2026-03-31T14:28:05Z</time></trkpt><trkpt lat="42.96214933724554" lon="-0.7737566835492635"><ele>1661.0</ele><time>2026-03-31T14:28:06Z</time></trkpt><trkpt lat="42.9621235645328" lon="-0.7736336075381623"><ele>1661.0</ele><time>2026-03-31T14:28:07Z</time></trkpt><trkpt lat="42.96214008104492" lon="-0.7735115458250182"><ele>1662.0</ele><time>2026-03-31T14:28:08Z</time></trkpt><trkpt lat="42.9621961626512" lon="-0.7734011403805474"><ele>1663.0</ele><time>2026-03-31T14:28:09Z</time></trkpt><trkpt lat="42.96228143042791" lon="-0.7733195001581407"><ele>1664.0</ele><time>2026-03-31T14:28:10Z</time></trkpt><trkpt lat="42.96237934116073" lon="-0.7732906599293468"><ele>1665.0</ele><time>2026-03-31T14:28:11Z</time></trkpt><trkpt lat="42.96247862013474" lon="-0.7733200217965777"><ele>1666.0</ele><time>2026-03-31T14:28:12Z</time></trkpt><trkpt lat="42.96256474861721" lon="-0.7733939314812018"><ele>1668.4</ele><time>2026-03-31T14:28:13Z</time></trkpt><trkpt lat="42.9626212395843" lon="-0.7735037699028726"><ele>1670.8</ele><time>2026-03-31T14:28:14Z</time></trkpt><trkpt lat="42.962640248450576" lon="-0.7736366537776017"><ele>1673.2</ele><time>2026-03-31T14:28:15Z</time></trkpt><trkpt lat="42.962633628628744" lon="-0.7737812005005174"><ele>1675.6000000000001</ele><time>2026-03-31T14:28:16Z</time></trkpt><trkpt lat="42.96263509557588" lon="-0.7739475836413774"><ele>1678.0</ele><time>2026-03-31T14:28:17Z</time></trkpt><trkpt lat="42.96267126300379" lon="-0.7741111791955001"><ele>1678.0</ele><time>2026-03-31T14:28:18Z</time></trkpt><trkpt lat="42.962734041417825" lon="-0.7742417057389804"><ele>1678.0</ele><time>2026-03-31T14:28:19Z</time></trkpt><trkpt lat="42.96281543022821" lon="-0.7743163256098705"><ele>1678.0</ele><time>2026-03-31T14:28:20Z</time></trkpt><trkpt lat="42.96289498295943" lon="-0.7743357331142603"><ele>1678.0</ele><time>2026-03-31T14:28:21Z</time></trkpt><trkpt lat="42.96297379331056" lon="-0.7742981128769064"><ele>1678.0</ele><time>2026-03-31T14:28:22Z</time></trkpt><trkpt lat="42.96303982578996" lon="-0.7742177905892871"><ele>1678.0</ele><time>2026-03-31T14:28:23Z</time></trkpt><trkpt lat="42.96307952715825" lon="-0.7740795546006268"><ele>1678.0</ele><time>2026-03-31T14:28:24Z</time></trkpt><trkpt lat="42.96315799742518" lon="-0.7739459002386307"><ele>1678.0</ele><time>2026-03-31T14:28:25Z</time></trkpt><trkpt lat="42.96323399096631" lon="-0.7737806721401053"><ele>1678.0</ele><time>2026-03-31T14:28:26Z</time></trkpt><trkpt lat="42.9633212627632" lon="-0.773600211239116"><ele>1681.25</ele><time>2026-03-31T14:28:27Z</time></trkpt><trkpt lat="42.96339655518391" lon="-0.7734319419257515"><ele>1684.5</ele><time>2026-03-31T14:28:28Z</time></trkpt><trkpt lat="42.96347013271213" lon="-0.7732644465759784"><ele>1687.75</ele><time>2026-03-31T14:28:29Z</time></trkpt><trkpt lat="42.96354303839144" lon="-0.7730948762689246"><ele>1691.0</ele><time>2026-03-31T14:28:30Z</time></trkpt><trkpt lat="42.96360362179297" lon="-0.7729286881013229"><ele>1690.9999999999998</ele><time>2026-03-31T14:28:31Z</time></trkpt><trkpt lat="42.96363568104399" lon="-0.772776014821362"><ele>1691.0</ele><time>2026-03-31T14:28:32Z</time></trkpt><trkpt lat="42.963642775157815" lon="-0.7726509741241232"><ele>1691.0</ele><time>2026-03-31T14:28:33Z</time></trkpt><trkpt lat="42.963634851463894" lon="-0.7725404978819292"><ele>1691.0</ele><time>2026-03-31T14:28:34Z</time></trkpt><trkpt lat="42.96360879405127" lon="-0.7724401351851274"><ele>1690.9999999999998</ele><time>2026-03-31T14:28:35Z</time></trkpt><trkpt lat="42.96355724874288" lon="-0.7723585052598396"><ele>1691.0</ele><time>2026-03-31T14:28:36Z</time></trkpt><trkpt lat="42.96348297385929" lon="-0.772314338761663"><ele>1691.8</ele><time>2026-03-31T14:28:37Z</time></trkpt><trkpt lat="42.96339568121332" lon="-0.7723154100032656"><ele>1692.6</ele><time>2026-03-31T14:28:38Z</time></trkpt><trkpt lat="42.963311571125985" lon="-0.7723664248235065"><ele>1693.4</ele><time>2026-03-31T14:28:39Z</time></trkpt><trkpt lat="42.96323804982353" lon="-0.7724553077092939"><ele>1694.2</ele><time>2026-03-31T14:28:40Z</time></trkpt><trkpt lat="42.96317215410824" lon="-0.7725675026328582"><ele>1695.0</ele><time>2026-03-31T14:28:41Z</time></trkpt><trkpt lat="42.96310347888975" lon="-0.7726887181718738"><ele>1691.6</ele><time>2026-03-31T14:28:42Z</time></trkpt><trkpt lat="42.963038429349595" lon="-0.7728171330747065"><ele>1688.2</ele><time>2026-03-31T14:28:43Z</time></trkpt><trkpt lat="42.9629968943225" lon="-0.7729435428054692"><ele>1684.8000000000002</ele><time>2026-03-31T14:28:44Z</time></trkpt><trkpt lat="42.96299929548304" lon="-0.7730634696889982"><ele>1681.4</ele><time>2026-03-31T14:28:45Z</time></trkpt><trkpt lat="42.963045318262225" lon="-0.7731658006692549"><ele>1678.0</ele><time>2026-03-31T14:28:46Z</time></trkpt><trkpt lat="42.963122094894395" lon="-0.7732337480475674"><ele>1678.0</ele><time>2026-03-31T14:28:47Z</time></trkpt><trkpt lat="42.963218546280956" lon="-0.7732513810901726"><ele>1678.0</ele><time>2026-03-31T14:28:48Z</time></trkpt><trkpt lat="42.96331972245463" lon="-0.7731984074085536"><ele>1678.0</ele><time>2026-03-31T14:28:49Z</time></trkpt><trkpt lat="42.96343586147163" lon="-0.7731590083790573"><ele>1678.0</ele><time>2026-03-31T14:28:50Z</time></trkpt><trkpt lat="42.96356170000215" lon="-0.7731183142551707"><ele>1681.25</ele><time>2026-03-31T14:28:51Z</time></trkpt><trkpt lat="42.96369300517928" lon="-0.7730774406060558"><ele>1684.5</ele><time>2026-03-31T14:28:52Z</time></trkpt><trkpt lat="42.96382643400016" lon="-0.7730542047122222"><ele>1687.75</ele><time>2026-03-31T14:28:53Z</time></trkpt><trkpt lat="42.96395963080721" lon="-0.7730057944644058"><ele>1691.0</ele><time>2026-03-31T14:28:54Z</time></trkpt><trkpt lat="42.96409806142448" lon="-0.7729592249389955"><ele>1695.5</ele><time>2026-03-31T14:28:55Z</time></trkpt><trkpt lat="42.96423137404182" lon="-0.772910607893674"><ele>1700.0</ele><time>2026-03-31T14:28:56Z</time></trkpt><trkpt lat="42.96433453916363" lon="-0.7728610733619758"><ele>1704.5</ele><time>2026-03-31T14:28:57Z</time></trkpt><trkpt lat="42.964429098365365" lon="-0.7727929024618992"><ele>1709.0</ele><time>2026-03-31T14:28:58Z</time></trkpt><trkpt lat="42.96450929490317" lon="-0.7726880564818283"><ele>1709.0</ele><time>2026-03-31T14:28:59Z</time></trkpt><trkpt lat="42.964579268332365" lon="-0.7725520147511149"><ele>1709.0</ele><time>2026-03-31T14:29:00Z</time></trkpt><trkpt lat="42.96464218509292" lon="-0.7723962669131081"><ele>1709.0</ele><time>2026-03-31T14:29:01Z</time></trkpt><trkpt lat="42.964742288587836" lon="-0.7722662851034072"><ele>1709.0</ele><time>2026-03-31T14:29:02Z</time></trkpt><trkpt lat="42.96485623520345" lon="-0.7721461322256743"><ele>1709.0</ele><time>2026-03-31T14:29:03Z</time></trkpt><trkpt lat="42.96499184953761" lon="-0.7720413716557556"><ele>1709.0</ele><time>2026-03-31T14:29:04Z</time></trkpt><trkpt lat="42.96512918559598" lon="-0.7719628791790135"><ele>1709.0</ele><time>2026-03-31T14:29:05Z</time></trkpt><trkpt lat="42.96526084410099" lon="-0.7718832306690312"><ele>1709.0</ele><time>2026-03-31T14:29:06Z</time></trkpt><trkpt lat="42.96537887770291" lon="-0.7717659492283007"><ele>1709.25</ele><time>2026-03-31T14:29:07Z</time></trkpt><trkpt lat="42.96547128479106" lon="-0.7716275407433429"><ele>1709.5</ele><time>2026-03-31T14:29:08Z</time></trkpt><trkpt lat="42.9655569146253" lon="-0.7714843284851656"><ele>1709.75</ele><time>2026-03-31T14:29:09Z</time></trkpt><trkpt lat="42.96562971648132" lon="-0.7713271269430806"><ele>1710.0</ele><time>2026-03-31T14:29:10Z</time></trkpt><trkpt lat="42.96570594262582" lon="-0.771176425178211"><ele>1710.0</ele><time>2026-03-31T14:29:11Z</time></trkpt><trkpt lat="42.965752591506295" lon="-0.7710403338236712"><ele>1710.0</ele><time>2026-03-31T14:29:12Z</time></trkpt><trkpt lat="42.96579441933071" lon="-0.7709101456670613"><ele>1710.0</ele><time>2026-03-31T14:29:13Z</time></trkpt><trkpt lat="42.965832244590025" lon="-0.7707810934717028"><ele>1710.0</ele><time>2026-03-31T14:29:14Z</time></trkpt><trkpt lat="42.96588096818833" lon="-0.7706455557312486"><ele>1710.0</ele><time>2026-03-31T14:29:15Z</time></trkpt><trkpt lat="42.965945178842446" lon="-0.7705067021177386"><ele>1706.75</ele><time>2026-03-31T14:29:16Z</time></trkpt><trkpt lat="42.96602820712462" lon="-0.7703822140558375"><ele>1703.5</ele><time>2026-03-31T14:29:17Z</time></trkpt><trkpt lat="42.96611497291697" lon="-0.7702596263973177"><ele>1700.25</ele><time>2026-03-31T14:29:18Z</time></trkpt><trkpt lat="42.96620259176467" lon="-0.770136040703204"><ele>1697.0</ele><time>2026-03-31T14:29:19Z</time></trkpt><trkpt lat="42.966270351586516" lon="-0.7699941861105813"><ele>1697.0</ele><time>2026-03-31T14:29:20Z</time></trkpt><trkpt lat="42.96634112972802" lon="-0.7698574197303538"><ele>1697.0</ele><time>2026-03-31T14:29:21Z</time></trkpt><trkpt lat="42.96642119104502" lon="-0.7697326296778391"><ele>1697.0</ele><time>2026-03-31T14:29:22Z</time></trkpt><trkpt lat="42.96649374855582" lon="-0.7696097308335319"><ele>1697.0</ele><time>2026-03-31T14:29:23Z</time></trkpt><trkpt lat="42.96656318296366" lon="-0.7694873797742815"><ele>1697.0</ele><time>2026-03-31T14:29:24Z</time></trkpt><trkpt lat="42.966640565751106" lon="-0.7693682194285193"><ele>1697.0</ele><time>2026-03-31T14:29:25Z</time></trkpt><trkpt lat="42.96671644024948" lon="-0.7692503337385653"><ele>1697.0</ele><time>2026-03-31T14:29:26Z</time></trkpt><trkpt lat="42.96678857152373" lon="-0.7691338598550022"><ele>1697.0</ele><time>2026-03-31T14:29:27Z</time></trkpt><trkpt lat="42.96685849253825" lon="-0.7690189578774119"><ele>1699.3999999999999</ele><time>2026-03-31T14:29:28Z</time></trkpt><trkpt lat="42.966897315256205" lon="-0.7688820700781945"><ele>1701.8</ele><time>2026-03-31T14:29:29Z</time></trkpt><trkpt lat="42.96692767959182" lon="-0.7687477784894625"><ele>1704.2</ele><time>2026-03-31T14:29:30Z</time></trkpt><trkpt lat="42.96692312446792" lon="-0.7686165987078144"><ele>1706.6</ele><time>2026-03-31T14:29:31Z</time></trkpt><trkpt lat="42.96693571324057" lon="-0.7684585835885016"><ele>1709.0</ele><time>2026-03-31T14:29:32Z</time></trkpt><trkpt lat="42.96692298268993" lon="-0.768312895649228"><ele>1712.25</ele><time>2026-03-31T14:29:33Z</time></trkpt><trkpt lat="42.96690511262869" lon="-0.7681668564344949"><ele>1715.5</ele><time>2026-03-31T14:29:34Z</time></trkpt><trkpt lat="42.96690706342689" lon="-0.7680046997958627"><ele>1718.75</ele><time>2026-03-31T14:29:35Z</time></trkpt><trkpt lat="42.96689503054047" lon="-0.7678390530291953"><ele>1722.0</ele><time>2026-03-31T14:29:36Z</time></trkpt><trkpt lat="42.96688047029463" lon="-0.7676707803993245"><ele>1722.75</ele><time>2026-03-31T14:29:37Z</time></trkpt><trkpt lat="42.96686440100184" lon="-0.7675019436406977"><ele>1723.5</ele><time>2026-03-31T14:29:38Z</time></trkpt><trkpt lat="42.966854394267614" lon="-0.7673418529951733"><ele>1724.25</ele><time>2026-03-31T14:29:39Z</time></trkpt><trkpt lat="42.966862838086996" lon="-0.7671913874366868"><ele>1725.0</ele><time>2026-03-31T14:29:40Z</time></trkpt><trkpt lat="42.96689798932676" lon="-0.7670454492727068"><ele>1725.0</ele><time>2026-03-31T14:29:41Z</time></trkpt><trkpt lat="42.96695333574574" lon="-0.766911781660265"><ele>1725.0</ele><time>2026-03-31T14:29:42Z</time></trkpt><trkpt lat="42.967030599434636" lon="-0.7667988160113036"><ele>1725.0</ele><time>2026-03-31T14:29:43Z</time></trkpt><trkpt lat="42.967123174893146" lon="-0.7667079158434666"><ele>1725.0</ele><time>2026-03-31T14:29:44Z</time></trkpt><trkpt lat="42.96723130454535" lon="-0.7666483773751915"><ele>1727.25</ele><time>2026-03-31T14:29:45Z</time></trkpt><trkpt lat="42.967349810719575" lon="-0.7666204145439163"><ele>1729.5</ele><time>2026-03-31T14:29:46Z</time></trkpt><trkpt lat="42.967467814557416" lon="-0.7666247809413377"><ele>1731.75</ele><time>2026-03-31T14:29:47Z</time></trkpt><trkpt lat="42.96758210862187" lon="-0.7666634552727839"><ele>1734.0</ele><time>2026-03-31T14:29:48Z</time></trkpt><trkpt lat="42.967683924279214" lon="-0.7667385429117095"><ele>1739.5</ele><time>2026-03-31T14:29:49Z</time></trkpt><trkpt lat="42.967765763379944" lon="-0.7668458801854694"><ele>1745.0</ele><time>2026-03-31T14:29:50Z</time></trkpt><trkpt lat="42.96782345648758" lon="-0.7669854439358299"><ele>1750.5</ele><time>2026-03-31T14:29:51Z</time></trkpt><trkpt lat="42.96784750294789" lon="-0.7671477467921204"><ele>1756.0</ele><time>2026-03-31T14:29:52Z</time></trkpt><trkpt lat="42.967841281342444" lon="-0.7673226590048139"><ele>1756.0</ele><time>2026-03-31T14:29:53Z</time></trkpt><trkpt lat="42.96782535244733" lon="-0.7675101267322741"><ele>1756.0</ele><time>2026-03-31T14:29:54Z</time></trkpt><trkpt lat="42.96782262862861" lon="-0.7677107328709605"><ele>1756.0</ele><time>2026-03-31T14:29:55Z</time></trkpt><trkpt lat="42.96782847276098" lon="-0.7679072626623522"><ele>1756.0</ele><time>2026-03-31T14:29:56Z</time></trkpt><trkpt lat="42.967852557151204" lon="-0.7680973385006578"><ele>1753.6</ele><time>2026-03-31T14:29:57Z</time></trkpt><trkpt lat="42.967890318650966" lon="-0.7682404219280579"><ele>1751.1999999999998</ele><time>2026-03-31T14:29:58Z</time></trkpt><trkpt lat="42.96795336457679" lon="-0.7683564178952502"><ele>1748.8000000000002</ele><time>2026-03-31T14:29:59Z</time></trkpt><trkpt lat="42.96804540488594" lon="-0.7684377329901353"><ele>1746.4</ele><time>2026-03-31T14:30:00Z</time></trkpt><trkpt lat="42.96816490929415" lon="-0.7684715655163292"><ele>1744.0</ele><time>2026-03-31T14:30:01Z</time></trkpt><trkpt lat="42.96827208093511" lon="-0.768563884242516"><ele>1743.2</ele><time>2026-03-31T14:30:02Z</time></trkpt><trkpt lat="42.96835164285286" lon="-0.7686659589342295"><ele>1742.4</ele><time>2026-03-31T14:30:03Z</time></trkpt><trkpt lat="42.96838892079222" lon="-0.7687905277640051"><ele>1741.6</ele><time>2026-03-31T14:30:04Z</time></trkpt><trkpt lat="42.96839484264739" lon="-0.7689330330426225"><ele>1740.8</ele><time>2026-03-31T14:30:05Z</time></trkpt><trkpt lat="42.96838271727106" lon="-0.7690892550055675"><ele>1740.0</ele><time>2026-03-31T14:30:06Z</time></trkpt><trkpt lat="42.96836153489672" lon="-0.7692490141646711"><ele>1740.5</ele><time>2026-03-31T14:30:07Z</time></trkpt><trkpt lat="42.96834449256104" lon="-0.7694113667968534"><ele>1741.0</ele><time>2026-03-31T14:30:08Z</time></trkpt><trkpt lat="42.96833708485869" lon="-0.7695761720506342"><ele>1741.5</ele><time>2026-03-31T14:30:09Z</time></trkpt><trkpt lat="42.96833661018509" lon="-0.7697432308463801"><ele>1742.0</ele><time>2026-03-31T14:30:10Z</time></trkpt><trkpt lat="42.96833731079898" lon="-0.769904935984842"><ele>1742.0</ele><time>2026-03-31T14:30:11Z</time></trkpt><trkpt lat="42.96833794073589" lon="-0.7700645361672966"><ele>1742.0</ele><time>2026-03-31T14:30:12Z</time></trkpt><trkpt lat="42.96833061932292" lon="-0.7702237373553051"><ele>1742.0</ele><time>2026-03-31T14:30:13Z</time></trkpt><trkpt lat="42.9683095376847" lon="-0.770381085663398"><ele>1742.0</ele><time>2026-03-31T14:30:14Z</time></trkpt><trkpt lat="42.96827432582705" lon="-0.77054903150987"><ele>1743.1666666666665</ele><time>2026-03-31T14:30:15Z</time></trkpt><trkpt lat="42.9682393202053" lon="-0.7707092533419364"><ele>1744.3333333333333</ele><time>2026-03-31T14:30:16Z</time></trkpt><trkpt lat="42.96821742077047" lon="-0.7708355943395316"><ele>1745.5</ele><time>2026-03-31T14:30:17Z</time></trkpt><trkpt lat="42.96821867080223" lon="-0.7709442079892093"><ele>1746.6666666666665</ele><time>2026-03-31T14:30:18Z</time></trkpt><trkpt lat="42.96824685921588" lon="-0.771032248779009"><ele>1747.8333333333333</ele><time>2026-03-31T14:30:19Z</time></trkpt><trkpt lat="42.96830157901839" lon="-0.7711014674264625"><ele>1749.0</ele><time>2026-03-31T14:30:20Z</time></trkpt><trkpt lat="42.96837981893553" lon="-0.7711411873659658"><ele>1752.1666666666667</ele><time>2026-03-31T14:30:21Z</time></trkpt><trkpt lat="42.96847587704895" lon="-0.7711380376330154"><ele>1755.3333333333335</ele><time>2026-03-31T14:30:22Z</time></trkpt><trkpt lat="42.96855495283245" lon="-0.7710686527108352"><ele>1758.5</ele><time>2026-03-31T14:30:23Z</time></trkpt><trkpt lat="42.96861125715951" lon="-0.7710030179199585"><ele>1761.6666666666667</ele><time>2026-03-31T14:30:24Z</time></trkpt><trkpt lat="42.96862853039425" lon="-0.7708907238258329"><ele>1764.8333333333335</ele><time>2026-03-31T14:30:25Z</time></trkpt><trkpt lat="42.96862760777181" lon="-0.7707604702256052"><ele>1768.0</ele><time>2026-03-31T14:30:26Z</time></trkpt><trkpt lat="42.96863078119274" lon="-0.7706230007307181"><ele>1768.2</ele><time>2026-03-31T14:30:27Z</time></trkpt><trkpt lat="42.96864790396932" lon="-0.7704841776225902"><ele>1768.4</ele><time>2026-03-31T14:30:28Z</time></trkpt><trkpt lat="42.96866252974951" lon="-0.7703491082090927"><ele>1768.6000000000001</ele><time>2026-03-31T14:30:29Z</time></trkpt><trkpt lat="42.96867584867615" lon="-0.770221849696031"><ele>1768.8000000000002</ele><time>2026-03-31T14:30:30Z</time></trkpt><trkpt lat="42.96868734476879" lon="-0.7700989525793079"><ele>1769.0</ele><time>2026-03-31T14:30:31Z</time></trkpt><trkpt lat="42.96870668495309" lon="-0.7699776557626018"><ele>1769.6</ele><time>2026-03-31T14:30:32Z</time></trkpt><trkpt lat="42.968725626593" lon="-0.7698480473084885"><ele>1770.2</ele><time>2026-03-31T14:30:33Z</time></trkpt><trkpt lat="42.968746263959694" lon="-0.7697119483459883"><ele>1770.7999999999997</ele><time>2026-03-31T14:30:34Z</time></trkpt><trkpt lat="42.9687704125865" lon="-0.769575056201168"><ele>1771.3999999999999</ele><time>2026-03-31T14:30:35Z</time></trkpt><trkpt lat="42.968799609425055" lon="-0.7694373494323101"><ele>1772.0</ele><time>2026-03-31T14:30:36Z</time></trkpt><trkpt lat="42.96882548178264" lon="-0.7692977830880865"><ele>1772.0</ele><time>2026-03-31T14:30:37Z</time></trkpt><trkpt lat="42.96884613816917" lon="-0.7691535966119235"><ele>1771.9999999999998</ele><time>2026-03-31T14:30:38Z</time></trkpt><trkpt lat="42.9688611965378" lon="-0.7690070315013144"><ele>1771.9999999999998</ele><time>2026-03-31T14:30:39Z</time></trkpt><trkpt lat="42.968871399965" lon="-0.7688789983276103"><ele>1772.0</ele><time>2026-03-31T14:30:40Z</time></trkpt><trkpt lat="42.96887832594396" lon="-0.7687887717357341"><ele>1772.0</ele><time>2026-03-31T14:30:41Z</time></trkpt><trkpt lat="42.96888744917436" lon="-0.7686785559036687"><ele>1771.9999999999998</ele><time>2026-03-31T14:30:43Z</time></trkpt><trkpt lat="42.96887982547352" lon="-0.7687723543053564"><ele>1772.0</ele><time>2026-03-31T14:30:48Z</time></trkpt><trkpt lat="42.96886778169437" lon="-0.7688871448037852"><ele>1772.0</ele><time>2026-03-31T14:30:49Z</time></trkpt><trkpt lat="42.968884095560625" lon="-0.7690314113070112"><ele>1772.0</ele><time>2026-03-31T14:30:50Z</time></trkpt><trkpt lat="42.968874628512324" lon="-0.7691408473238429"><ele>1771.9999999999998</ele><time>2026-03-31T14:30:51Z</time></trkpt><trkpt lat="42.96885634872721" lon="-0.7692820112728499"><ele>1772.0</ele><time>2026-03-31T14:30:53Z</time></trkpt><trkpt lat="42.96884114359234" lon="-0.7693885880180186"><ele>1771.9999999999998</ele><time>2026-03-31T14:30:56Z</time></trkpt><trkpt lat="42.96880167232755" lon="-0.7693032071120929"><ele>1772.0</ele><time>2026-03-31T14:31:00Z</time></trkpt><trkpt lat="42.968839428104914" lon="-0.7692140866298541"><ele>1772.0</ele><time>2026-03-31T14:31:37Z</time></trkpt><trkpt lat="42.96885755959519" lon="-0.7691019797065313"><ele>1772.0</ele><time>2026-03-31T14:31:38Z</time></trkpt><trkpt lat="42.96885652491001" lon="-0.7689654392552122"><ele>1771.9999999999998</ele><time>2026-03-31T14:31:39Z</time></trkpt><trkpt lat="42.968871345941004" lon="-0.7688462872657399"><ele>1772.0</ele><time>2026-03-31T14:31:40Z</time></trkpt><trkpt lat="42.96888486663737" lon="-0.7687284001832368"><ele>1771.9999999999998</ele><time>2026-03-31T14:31:41Z</time></trkpt><trkpt lat="42.96889795201439" lon="-0.7686143086782841"><ele>1772.0</ele><time>2026-03-31T14:31:42Z</time></trkpt><trkpt lat="42.96891267656212" lon="-0.7684966279702877"><ele>1772.0</ele><time>2026-03-31T14:31:43Z</time></trkpt><trkpt lat="42.968928047195774" lon="-0.7683815348126578"><ele>1772.0</ele><time>2026-03-31T14:31:44Z</time></trkpt><trkpt lat="42.96894079976475" lon="-0.7682860452494028"><ele>1771.9999999999998</ele><time>2026-03-31T14:31:45Z</time></trkpt><trkpt lat="42.96895452204203" lon="-0.7681995412645455"><ele>1772.0</ele><time>2026-03-31T14:31:46Z</time></trkpt><trkpt lat="42.9689742327775" lon="-0.7680966018137881"><ele>1771.1999999999998</ele><time>2026-03-31T14:31:47Z</time></trkpt><trkpt lat="42.96901180157628" lon="-0.767984693103648"><ele>1770.3999999999999</ele><time>2026-03-31T14:31:48Z</time></trkpt><trkpt lat="42.969063426395884" lon="-0.7678798461644681"><ele>1769.6000000000001</ele><time>2026-03-31T14:31:49Z</time></trkpt><trkpt lat="42.96911127640358" lon="-0.767762927755917"><ele>1768.8000000000002</ele><time>2026-03-31T14:31:50Z</time></trkpt><trkpt lat="42.96916707898977" lon="-0.767645094665489"><ele>1768.0</ele><time>2026-03-31T14:31:51Z</time></trkpt><trkpt lat="42.96922734455657" lon="-0.7675322641233617"><ele>1768.0</ele><time>2026-03-31T14:31:52Z</time></trkpt><trkpt lat="42.9692894273713" lon="-0.7674224466473087"><ele>1768.0000000000002</ele><time>2026-03-31T14:31:53Z</time></trkpt><trkpt lat="42.96935235809456" lon="-0.7673186969068058"><ele>1768.0000000000002</ele><time>2026-03-31T14:31:54Z</time></trkpt><trkpt lat="42.96940972770809" lon="-0.7672267984870559"><ele>1768.0</ele><time>2026-03-31T14:31:55Z</time></trkpt><trkpt lat="42.96947052107128" lon="-0.7671521127788129"><ele>1768.0</ele><time>2026-03-31T14:31:56Z</time></trkpt><trkpt lat="42.96953243064851" lon="-0.7670505188163623"><ele>1768.0</ele><time>2026-03-31T14:31:57Z</time></trkpt><trkpt lat="42.96959982018712" lon="-0.7669455114281472"><ele>1768.0000000000002</ele><time>2026-03-31T14:31:58Z</time></trkpt><trkpt lat="42.96966169417974" lon="-0.7668541165430036"><ele>1768.0000000000002</ele><time>2026-03-31T14:31:59Z</time></trkpt><trkpt lat="42.96972364008145" lon="-0.7667649651883072"><ele>1768.0</ele><time>2026-03-31T14:32:00Z</time></trkpt><trkpt lat="42.96978803231034" lon="-0.7666704489806054"><ele>1768.0</ele><time>2026-03-31T14:32:01Z</time></trkpt><trkpt lat="42.9698516281006" lon="-0.766571658883571"><ele>1766.8000000000002</ele><time>2026-03-31T14:32:02Z</time></trkpt><trkpt lat="42.969915628382125" lon="-0.7664718461783053"><ele>1765.6000000000001</ele><time>2026-03-31T14:32:03Z</time></trkpt><trkpt lat="42.96996503392284" lon="-0.7663546281182263"><ele>1764.3999999999999</ele><time>2026-03-31T14:32:04Z</time></trkpt><trkpt lat="42.97003006094294" lon="-0.7662496365876887"><ele>1763.1999999999998</ele><time>2026-03-31T14:32:05Z</time></trkpt><trkpt lat="42.9700947647946" lon="-0.7661416260986482"><ele>1762.0</ele><time>2026-03-31T14:32:06Z</time></trkpt><trkpt lat="42.97017419735332" lon="-0.7660441850677884"><ele>1760.1999999999998</ele><time>2026-03-31T14:32:07Z</time></trkpt><trkpt lat="42.97024148765445" lon="-0.7659263837345567"><ele>1758.3999999999999</ele><time>2026-03-31T14:32:08Z</time></trkpt><trkpt lat="42.97030859904964" lon="-0.7658130566168965"><ele>1756.6000000000001</ele><time>2026-03-31T14:32:09Z</time></trkpt><trkpt lat="42.97037069398694" lon="-0.7656985498626864"><ele>1754.8000000000002</ele><time>2026-03-31T14:32:10Z</time></trkpt><trkpt lat="42.97042590472092" lon="-0.7655758854027135"><ele>1753.0</ele><time>2026-03-31T14:32:11Z</time></trkpt><trkpt lat="42.97047303618696" lon="-0.7654545720128458"><ele>1753.0</ele><time>2026-03-31T14:32:12Z</time></trkpt><trkpt lat="42.970515712114704" lon="-0.7653321765920201"><ele>1753.0000000000002</ele><time>2026-03-31T14:32:13Z</time></trkpt><trkpt lat="42.97056294665595" lon="-0.7651987314659391"><ele>1753.0000000000002</ele><time>2026-03-31T14:32:14Z</time></trkpt><trkpt lat="42.97060848137124" lon="-0.7650665949150517"><ele>1753.0</ele><time>2026-03-31T14:32:15Z</time></trkpt><trkpt lat="42.970652415271545" lon="-0.76492675584681"><ele>1753.0</ele><time>2026-03-31T14:32:16Z</time></trkpt><trkpt lat="42.97069249004609" lon="-0.7647989274279183"><ele>1753.0</ele><time>2026-03-31T14:32:17Z</time></trkpt><trkpt lat="42.9707315087959" lon="-0.7646665981169583"><ele>1753.0000000000002</ele><time>2026-03-31T14:32:18Z</time></trkpt><trkpt lat="42.97075767362739" lon="-0.7645311786162744"><ele>1753.0000000000002</ele><time>2026-03-31T14:32:19Z</time></trkpt><trkpt lat="42.9707709444851" lon="-0.764389242812607"><ele>1753.0</ele><time>2026-03-31T14:32:20Z</time></trkpt><trkpt lat="42.97077411113734" lon="-0.7642320962561017"><ele>1753.0</ele><time>2026-03-31T14:32:21Z</time></trkpt><trkpt lat="42.97076992107294" lon="-0.7640692948988027"><ele>1753.0</ele><time>2026-03-31T14:32:22Z</time></trkpt><trkpt lat="42.970767745499444" lon="-0.7639053333388628"><ele>1753.0</ele><time>2026-03-31T14:32:23Z</time></trkpt><trkpt lat="42.97077799534881" lon="-0.7637292672359868"><ele>1753.0</ele><time>2026-03-31T14:32:24Z</time></trkpt><trkpt lat="42.970802691136655" lon="-0.7635720812708193"><ele>1753.0</ele><time>2026-03-31T14:32:25Z</time></trkpt><trkpt lat="42.97083374372078" lon="-0.7634322953681951"><ele>1743.25</ele><time>2026-03-31T14:32:26Z</time></trkpt><trkpt lat="42.970867205070846" lon="-0.7632940451003218"><ele>1733.5</ele><time>2026-03-31T14:32:27Z</time></trkpt><trkpt lat="42.97089994649397" lon="-0.7631467149257087"><ele>1723.75</ele><time>2026-03-31T14:32:28Z</time></trkpt><trkpt lat="42.970928437765004" lon="-0.7629845937157145"><ele>1714.0</ele><time>2026-03-31T14:32:29Z</time></trkpt><trkpt lat="42.970955803419265" lon="-0.7628134395018229"><ele>1715.8000000000002</ele><time>2026-03-31T14:32:30Z</time></trkpt><trkpt lat="42.9709763999429" lon="-0.7626585029998201"><ele>1717.6000000000001</ele><time>2026-03-31T14:32:31Z</time></trkpt><trkpt lat="42.97099853606375" lon="-0.7625213354663527"><ele>1719.4</ele><time>2026-03-31T14:32:32Z</time></trkpt><trkpt lat="42.97102898799056" lon="-0.7623902625422548"><ele>1721.2</ele><time>2026-03-31T14:32:33Z</time></trkpt><trkpt lat="42.971076234634715" lon="-0.7622605970080384"><ele>1723.0</ele><time>2026-03-31T14:32:34Z</time></trkpt><trkpt lat="42.97113442723338" lon="-0.7621377238811361"><ele>1723.0</ele><time>2026-03-31T14:32:35Z</time></trkpt><trkpt lat="42.971178817083" lon="-0.7620039282017564"><ele>1723.0000000000002</ele><time>2026-03-31T14:32:36Z</time></trkpt><trkpt lat="42.97123945619177" lon="-0.7618882615372293"><ele>1723.0000000000002</ele><time>2026-03-31T14:32:37Z</time></trkpt><trkpt lat="42.9712832481907" lon="-0.7617590050436668"><ele>1723.0</ele><time>2026-03-31T14:32:38Z</time></trkpt><trkpt lat="42.97132193919233" lon="-0.7616329036737991"><ele>1723.0</ele><time>2026-03-31T14:32:39Z</time></trkpt><trkpt lat="42.97136317092777" lon="-0.7615051014134575"><ele>1725.6000000000001</ele><time>2026-03-31T14:32:40Z</time></trkpt><trkpt lat="42.97139781734304" lon="-0.7613717618972514"><ele>1728.2000000000003</ele><time>2026-03-31T14:32:41Z</time></trkpt><trkpt lat="42.97139640201385" lon="-0.7612277848588561"><ele>1730.8</ele><time>2026-03-31T14:32:42Z</time></trkpt><trkpt lat="42.97139755177364" lon="-0.7610793446626333"><ele>1733.4</ele><time>2026-03-31T14:32:43Z</time></trkpt><trkpt lat="42.971397970485526" lon="-0.7609192556461761"><ele>1736.0</ele><time>2026-03-31T14:32:44Z</time></trkpt><trkpt lat="42.9714167581783" lon="-0.7607524990240594"><ele>1737.25</ele><time>2026-03-31T14:32:45Z</time></trkpt><trkpt lat="42.97141711046017" lon="-0.7605849966977631"><ele>1738.5</ele><time>2026-03-31T14:32:46Z</time></trkpt><trkpt lat="42.97142641656503" lon="-0.760422069242733"><ele>1739.75</ele><time>2026-03-31T14:32:47Z</time></trkpt><trkpt lat="42.97142361097772" lon="-0.7602610460884679"><ele>1741.0</ele><time>2026-03-31T14:32:48Z</time></trkpt><trkpt lat="42.971458906445086" lon="-0.7601181504148535"><ele>1741.8</ele><time>2026-03-31T14:32:49Z</time></trkpt><trkpt lat="42.97148980232055" lon="-0.759987353293203"><ele>1742.6</ele><time>2026-03-31T14:32:50Z</time></trkpt><trkpt lat="42.97154240806319" lon="-0.759875842482765"><ele>1743.4</ele><time>2026-03-31T14:32:51Z</time></trkpt><trkpt lat="42.97161606845844" lon="-0.7597904699813923"><ele>1744.2</ele><time>2026-03-31T14:32:52Z</time></trkpt><trkpt lat="42.97170822632817" lon="-0.7597207396069425"><ele>1745.0</ele><time>2026-03-31T14:32:53Z</time></trkpt><trkpt lat="42.97180705765482" lon="-0.759640287831901"><ele>1741.25</ele><time>2026-03-31T14:32:54Z</time></trkpt><trkpt lat="42.97190771763341" lon="-0.7595501849448456"><ele>1737.5</ele><time>2026-03-31T14:32:55Z</time></trkpt><trkpt lat="42.97200645315375" lon="-0.7594543607381378"><ele>1733.75</ele><time>2026-03-31T14:32:56Z</time></trkpt><trkpt lat="42.97210342336416" lon="-0.7593585189855748"><ele>1730.0</ele><time>2026-03-31T14:32:57Z</time></trkpt><trkpt lat="42.97218745720009" lon="-0.7592735051767011"><ele>1729.9999999999998</ele><time>2026-03-31T14:32:58Z</time></trkpt><trkpt lat="42.972249003116474" lon="-0.7592047611010778"><ele>1730.0</ele><time>2026-03-31T14:32:59Z</time></trkpt><trkpt lat="42.972309523326906" lon="-0.7591346355719416"><ele>1730.0</ele><time>2026-03-31T14:33:00Z</time></trkpt><trkpt lat="42.97234917332163" lon="-0.7590503089301542"><ele>1730.0</ele><time>2026-03-31T14:33:01Z</time></trkpt><trkpt lat="42.9723801790486" lon="-0.7589571906550981"><ele>1729.9999999999998</ele><time>2026-03-31T14:33:02Z</time></trkpt><trkpt lat="42.97241106494729" lon="-0.7588554455600254"><ele>1730.0</ele><time>2026-03-31T14:33:03Z</time></trkpt><trkpt lat="42.97243762092728" lon="-0.7587497960399348"><ele>1730.0</ele><time>2026-03-31T14:33:04Z</time></trkpt><trkpt lat="42.97245592406721" lon="-0.7586659812027993"><ele>1730.0</ele><time>2026-03-31T14:33:05Z</time></trkpt><trkpt lat="42.972480955321856" lon="-0.7585573937221134"><ele>1730.0</ele><time>2026-03-31T14:33:07Z</time></trkpt><trkpt lat="42.97250265559685" lon="-0.7584688836672598"><ele>1730.0</ele><time>2026-03-31T14:33:10Z</time></trkpt><trkpt lat="42.97250505898256" lon="-0.7583760800278084"><ele>1730.0</ele><time>2026-03-31T14:33:14Z</time></trkpt><trkpt lat="42.9725341790882" lon="-0.758276774751625"><ele>1730.0</ele><time>2026-03-31T14:34:46Z</time></trkpt><trkpt lat="42.97256204130796" lon="-0.7581843555588165"><ele>1730.0</ele><time>2026-03-31T14:34:47Z</time></trkpt><trkpt lat="42.97259685622919" lon="-0.7580933584956577"><ele>1729.1666666666665</ele><time>2026-03-31T14:34:48Z</time></trkpt><trkpt lat="42.97264448352552" lon="-0.7580089543904617"><ele>1728.3333333333333</ele><time>2026-03-31T14:34:49Z</time></trkpt><trkpt lat="42.9727102244106" lon="-0.7579377295659842"><ele>1727.5</ele><time>2026-03-31T14:34:50Z</time></trkpt><trkpt lat="42.972783335972956" lon="-0.757880359498373"><ele>1726.6666666666665</ele><time>2026-03-31T14:34:51Z</time></trkpt><trkpt lat="42.97285525322329" lon="-0.7578192452768875"><ele>1725.8333333333333</ele><time>2026-03-31T14:34:52Z</time></trkpt><trkpt lat="42.97292705017245" lon="-0.757738488859846"><ele>1725.0</ele><time>2026-03-31T14:34:53Z</time></trkpt><trkpt lat="42.97298198590964" lon="-0.7576473358690184"><ele>1725.0</ele><time>2026-03-31T14:34:54Z</time></trkpt><trkpt lat="42.97303227401071" lon="-0.7575422881157581"><ele>1725.0</ele><time>2026-03-31T14:34:55Z</time></trkpt><trkpt lat="42.97307531740057" lon="-0.7574373728909514"><ele>1725.0</ele><time>2026-03-31T14:34:56Z</time></trkpt><trkpt lat="42.97311424729344" lon="-0.7573444475748996"><ele>1725.0</ele><time>2026-03-31T14:34:57Z</time></trkpt><trkpt lat="42.97315832819253" lon="-0.7572824302838121"><ele>1725.0</ele><time>2026-03-31T14:34:58Z</time></trkpt><trkpt lat="42.973250150857325" lon="-0.7572786645771857"><ele>1725.0</ele><time>2026-03-31T14:35:00Z</time></trkpt><trkpt lat="42.973299029331194" lon="-0.757369376385446"><ele>1725.0</ele><time>2026-03-31T14:35:02Z</time></trkpt><trkpt lat="42.973288782957866" lon="-0.7575161145913865"><ele>1725.0</ele><time>2026-03-31T14:35:04Z</time></trkpt><trkpt lat="42.97325072985296" lon="-0.7576095213615082"><ele>1725.0</ele><time>2026-03-31T14:35:05Z</time></trkpt><trkpt lat="42.973199685224635" lon="-0.7577122075935773"><ele>1725.0</ele><time>2026-03-31T14:35:06Z</time></trkpt><trkpt lat="42.97316209078555" lon="-0.7578112207403316"><ele>1725.0</ele><time>2026-03-31T14:35:07Z</time></trkpt><trkpt lat="42.97319955752209" lon="-0.7579541669050949"><ele>1721.6</ele><time>2026-03-31T14:35:09Z</time></trkpt><trkpt lat="42.97330904981404" lon="-0.7579648609048313"><ele>1718.2</ele><time>2026-03-31T14:35:11Z</time></trkpt><trkpt lat="42.97337809370263" lon="-0.7579132733780771"><ele>1714.8000000000002</ele><time>2026-03-31T14:35:12Z</time></trkpt><trkpt lat="42.973436571880356" lon="-0.7578270472076252"><ele>1711.4</ele><time>2026-03-31T14:35:13Z</time></trkpt><trkpt lat="42.97349887938272" lon="-0.7577268145366498"><ele>1708.0</ele><time>2026-03-31T14:35:14Z</time></trkpt><trkpt lat="42.97357013450259" lon="-0.7576249455417854"><ele>1707.8333333333335</ele><time>2026-03-31T14:35:15Z</time></trkpt><trkpt lat="42.97364593004245" lon="-0.7575262801746893"><ele>1707.6666666666667</ele><time>2026-03-31T14:35:16Z</time></trkpt><trkpt lat="42.973711970552465" lon="-0.7574367292902364"><ele>1707.5</ele><time>2026-03-31T14:35:17Z</time></trkpt><trkpt lat="42.97376689631686" lon="-0.7573432309557847"><ele>1707.3333333333335</ele><time>2026-03-31T14:35:18Z</time></trkpt><trkpt lat="42.97380877534079" lon="-0.7572492073096545"><ele>1707.1666666666667</ele><time>2026-03-31T14:35:19Z</time></trkpt><trkpt lat="42.97383964903748" lon="-0.7571508089310001"><ele>1707.0</ele><time>2026-03-31T14:35:20Z</time></trkpt><trkpt lat="42.973864589965004" lon="-0.7570502047957809"><ele>1707.0</ele><time>2026-03-31T14:35:21Z</time></trkpt><trkpt lat="42.973887304098156" lon="-0.7569545923134429"><ele>1707.0</ele><time>2026-03-31T14:35:22Z</time></trkpt><trkpt lat="42.97391505210511" lon="-0.7568602252280855"><ele>1707.0</ele><time>2026-03-31T14:35:23Z</time></trkpt><trkpt lat="42.97394967216912" lon="-0.7567731886478072"><ele>1707.0</ele><time>2026-03-31T14:35:24Z</time></trkpt><trkpt lat="42.9740322826225" lon="-0.7566807446897322"><ele>1707.0</ele><time>2026-03-31T14:35:26Z</time></trkpt><trkpt lat="42.97414109862696" lon="-0.7567407078350064"><ele>1707.0</ele><time>2026-03-31T14:35:28Z</time></trkpt><trkpt lat="42.974182567135344" lon="-0.756818118148982"><ele>1704.0</ele><time>2026-03-31T14:35:29Z</time></trkpt><trkpt lat="42.97422496438724" lon="-0.7569150231107984"><ele>1701.0</ele><time>2026-03-31T14:35:30Z</time></trkpt><trkpt lat="42.97427179937344" lon="-0.7570292283845226"><ele>1698.0</ele><time>2026-03-31T14:35:31Z</time></trkpt><trkpt lat="42.97431737338313" lon="-0.7571441394792606"><ele>1695.0</ele><time>2026-03-31T14:35:32Z</time></trkpt><trkpt lat="42.97434930751153" lon="-0.7572586076006419"><ele>1692.0</ele><time>2026-03-31T14:35:33Z</time></trkpt><trkpt lat="42.97435870645452" lon="-0.7573663183225"><ele>1689.0</ele><time>2026-03-31T14:35:34Z</time></trkpt><trkpt lat="42.97435078530422" lon="-0.7574811457151145"><ele>1689.0</ele><time>2026-03-31T14:35:35Z</time></trkpt><trkpt lat="42.97433026304684" lon="-0.7576018730920067"><ele>1689.0</ele><time>2026-03-31T14:35:36Z</time></trkpt><trkpt lat="42.974303123820114" lon="-0.7577252656561504"><ele>1689.0</ele><time>2026-03-31T14:35:37Z</time></trkpt><trkpt lat="42.974278363223796" lon="-0.7578482511701831"><ele>1689.0</ele><time>2026-03-31T14:35:38Z</time></trkpt><trkpt lat="42.9742615264192" lon="-0.7579646388722765"><ele>1689.0</ele><time>2026-03-31T14:35:39Z</time></trkpt><trkpt lat="42.97425425555816" lon="-0.7580831571854458"><ele>1688.2</ele><time>2026-03-31T14:35:40Z</time></trkpt><trkpt lat="42.97425177704181" lon="-0.7582227542609731"><ele>1687.4</ele><time>2026-03-31T14:35:41Z</time></trkpt><trkpt lat="42.97424663810716" lon="-0.7583719058566137"><ele>1686.6</ele><time>2026-03-31T14:35:42Z</time></trkpt><trkpt lat="42.974252193466114" lon="-0.7585118656272108"><ele>1685.8</ele><time>2026-03-31T14:35:43Z</time></trkpt><trkpt lat="42.97427342413604" lon="-0.7586338893816214"><ele>1685.0</ele><time>2026-03-31T14:35:44Z</time></trkpt><trkpt lat="42.97430763736492" lon="-0.758724104239734"><ele>1683.2</ele><time>2026-03-31T14:35:45Z</time></trkpt><trkpt lat="42.97435977567696" lon="-0.7587872819332706"><ele>1681.4</ele><time>2026-03-31T14:35:46Z</time></trkpt><trkpt lat="42.97443380618939" lon="-0.7588264165024121"><ele>1679.6</ele><time>2026-03-31T14:35:47Z</time></trkpt><trkpt lat="42.97452479849336" lon="-0.7588355162498115"><ele>1677.8</ele><time>2026-03-31T14:35:48Z</time></trkpt><trkpt lat="42.9746258018058" lon="-0.7588217480136473"><ele>1676.0</ele><time>2026-03-31T14:35:49Z</time></trkpt><trkpt lat="42.97474033870851" lon="-0.7588010542779022"><ele>1676.0</ele><time>2026-03-31T14:35:50Z</time></trkpt><trkpt lat="42.97485900069186" lon="-0.7587760321123947"><ele>1676.0</ele><time>2026-03-31T14:35:51Z</time></trkpt><trkpt lat="42.974967851629685" lon="-0.7587440810592517"><ele>1676.0</ele><time>2026-03-31T14:35:52Z</time></trkpt><trkpt lat="42.97506753920018" lon="-0.7586875506764468"><ele>1676.0</ele><time>2026-03-31T14:35:53Z</time></trkpt><trkpt lat="42.97515209094926" lon="-0.7585950672464983"><ele>1676.0</ele><time>2026-03-31T14:35:54Z</time></trkpt><trkpt lat="42.97521698170459" lon="-0.7584652554250612"><ele>1676.6666666666665</ele><time>2026-03-31T14:35:55Z</time></trkpt><trkpt lat="42.97525385784409" lon="-0.7583252389218221"><ele>1677.3333333333333</ele><time>2026-03-31T14:35:56Z</time></trkpt><trkpt lat="42.97526317989414" lon="-0.7582102908195932"><ele>1678.0</ele><time>2026-03-31T14:35:57Z</time></trkpt><trkpt lat="42.97527042336487" lon="-0.7580947887816301"><ele>1678.6666666666665</ele><time>2026-03-31T14:35:58Z</time></trkpt><trkpt lat="42.9752897070554" lon="-0.7579821586608001"><ele>1679.3333333333333</ele><time>2026-03-31T14:35:59Z</time></trkpt><trkpt lat="42.97532581173575" lon="-0.7578818058569915"><ele>1680.0</ele><time>2026-03-31T14:36:00Z</time></trkpt><trkpt lat="42.975386007848506" lon="-0.7578171651923203"><ele>1680.0</ele><time>2026-03-31T14:36:01Z</time></trkpt><trkpt lat="42.97546225899459" lon="-0.7577880918535431"><ele>1680.0</ele><time>2026-03-31T14:36:02Z</time></trkpt><trkpt lat="42.97555344636105" lon="-0.7578009911155533"><ele>1680.0</ele><time>2026-03-31T14:36:03Z</time></trkpt><trkpt lat="42.97565809071897" lon="-0.7578404620793585"><ele>1680.0</ele><time>2026-03-31T14:36:04Z</time></trkpt><trkpt lat="42.97577262826504" lon="-0.7578644816441515"><ele>1680.0</ele><time>2026-03-31T14:36:05Z</time></trkpt><trkpt lat="42.975888422203255" lon="-0.7578549604920133"><ele>1680.75</ele><time>2026-03-31T14:36:06Z</time></trkpt><trkpt lat="42.97599621023186" lon="-0.7578128330872895"><ele>1681.5</ele><time>2026-03-31T14:36:07Z</time></trkpt><trkpt lat="42.97609958823786" lon="-0.7577390443542249"><ele>1682.25</ele><time>2026-03-31T14:36:08Z</time></trkpt><trkpt lat="42.97619543448479" lon="-0.7576453593024141"><ele>1683.0</ele><time>2026-03-31T14:36:09Z</time></trkpt><trkpt lat="42.97629788016327" lon="-0.7575710913055348"><ele>1681.2</ele><time>2026-03-31T14:36:10Z</time></trkpt><trkpt lat="42.97639997797698" lon="-0.7575104638845349"><ele>1679.4</ele><time>2026-03-31T14:36:11Z</time></trkpt><trkpt lat="42.976497828066336" lon="-0.7574550522144193"><ele>1677.6000000000001</ele><time>2026-03-31T14:36:12Z</time></trkpt><trkpt lat="42.97658893974812" lon="-0.7574045897762851"><ele>1675.8000000000002</ele><time>2026-03-31T14:36:13Z</time></trkpt><trkpt lat="42.976683798674024" lon="-0.7573618196462355"><ele>1674.0</ele><time>2026-03-31T14:36:14Z</time></trkpt><trkpt lat="42.97678631791051" lon="-0.7573257800377536"><ele>1673.25</ele><time>2026-03-31T14:36:15Z</time></trkpt><trkpt lat="42.97689671509128" lon="-0.7572830322430798"><ele>1672.5</ele><time>2026-03-31T14:36:16Z</time></trkpt><trkpt lat="42.9770122901782" lon="-0.7572147606452274"><ele>1671.75</ele><time>2026-03-31T14:36:17Z</time></trkpt><trkpt lat="42.97713146824445" lon="-0.7571192557531311"><ele>1671.0</ele><time>2026-03-31T14:36:18Z</time></trkpt><trkpt lat="42.977257612175315" lon="-0.7570070098272345"><ele>1671.0</ele><time>2026-03-31T14:36:19Z</time></trkpt><trkpt lat="42.9773797333092" lon="-0.7568947324998339"><ele>1671.0</ele><time>2026-03-31T14:36:20Z</time></trkpt><trkpt lat="42.977493372726734" lon="-0.7567960875875688"><ele>1671.0</ele><time>2026-03-31T14:36:21Z</time></trkpt><trkpt lat="42.977592896021626" lon="-0.7567159688425696"><ele>1671.0</ele><time>2026-03-31T14:36:22Z</time></trkpt><trkpt lat="42.97768696937215" lon="-0.7566423231950385"><ele>1669.8</ele><time>2026-03-31T14:36:23Z</time></trkpt><trkpt lat="42.977776162043746" lon="-0.7565719875530841"><ele>1668.6</ele><time>2026-03-31T14:36:24Z</time></trkpt><trkpt lat="42.97786423473494" lon="-0.7565058410380375"><ele>1667.4</ele><time>2026-03-31T14:36:25Z</time></trkpt><trkpt lat="42.977958405962106" lon="-0.7564384897495885"><ele>1666.2</ele><time>2026-03-31T14:36:26Z</time></trkpt><trkpt lat="42.978054269614184" lon="-0.7563671739458073"><ele>1665.0</ele><time>2026-03-31T14:36:27Z</time></trkpt><trkpt lat="42.9781547773489" lon="-0.7562951618765776"><ele>1665.0</ele><time>2026-03-31T14:36:28Z</time></trkpt><trkpt lat="42.978261053615256" lon="-0.7562148881902775"><ele>1665.0</ele><time>2026-03-31T14:36:29Z</time></trkpt><trkpt lat="42.97836811975418" lon="-0.7561240177582972"><ele>1665.0</ele><time>2026-03-31T14:36:30Z</time></trkpt><trkpt lat="42.978466484447345" lon="-0.7560151039442076"><ele>1665.0</ele><time>2026-03-31T14:36:31Z</time></trkpt><trkpt lat="42.97855128666288" lon="-0.7558891646413584"><ele>1664.25</ele><time>2026-03-31T14:36:32Z</time></trkpt><trkpt lat="42.9786316419131" lon="-0.7557583700264415"><ele>1663.5</ele><time>2026-03-31T14:36:33Z</time></trkpt><trkpt lat="42.97871147598656" lon="-0.7556400463321375"><ele>1662.75</ele><time>2026-03-31T14:36:34Z</time></trkpt><trkpt lat="42.978795148102556" lon="-0.7555415849276562"><ele>1662.0</ele><time>2026-03-31T14:36:35Z</time></trkpt><trkpt lat="42.97888074421" lon="-0.7554479336538532"><ele>1662.0</ele><time>2026-03-31T14:36:36Z</time></trkpt><trkpt lat="42.97896335598267" lon="-0.7553462315243069"><ele>1662.0</ele><time>2026-03-31T14:36:37Z</time></trkpt><trkpt lat="42.97904093307285" lon="-0.7552320389712406"><ele>1662.0</ele><time>2026-03-31T14:36:38Z</time></trkpt><trkpt lat="42.97911394204834" lon="-0.7551070365153855"><ele>1662.0</ele><time>2026-03-31T14:36:39Z</time></trkpt><trkpt lat="42.97918124485663" lon="-0.7549819442488596"><ele>1660.0</ele><time>2026-03-31T14:36:40Z</time></trkpt><trkpt lat="42.9792437231061" lon="-0.7548729259794815"><ele>1658.0</ele><time>2026-03-31T14:36:41Z</time></trkpt><trkpt lat="42.97929604531955" lon="-0.7547706707717142"><ele>1656.0</ele><time>2026-03-31T14:36:42Z</time></trkpt><trkpt lat="42.97933911241425" lon="-0.7546438188893833"><ele>1654.0</ele><time>2026-03-31T14:36:43Z</time></trkpt><trkpt lat="42.97936796112983" lon="-0.7544866498502916"><ele>1652.0</ele><time>2026-03-31T14:36:44Z</time></trkpt><trkpt lat="42.97937633036702" lon="-0.7543250854821882"><ele>1652.0</ele><time>2026-03-31T14:36:45Z</time></trkpt><trkpt lat="42.97938192990762" lon="-0.7541769416065568"><ele>1652.0</ele><time>2026-03-31T14:36:46Z</time></trkpt><trkpt lat="42.97940256590081" lon="-0.7540492480768833"><ele>1652.0</ele><time>2026-03-31T14:36:47Z</time></trkpt><trkpt lat="42.97944671413505" lon="-0.7539382355503284"><ele>1652.0</ele><time>2026-03-31T14:36:48Z</time></trkpt><trkpt lat="42.97950905897945" lon="-0.7538468863964741"><ele>1652.0</ele><time>2026-03-31T14:36:49Z</time></trkpt><trkpt lat="42.97957444291558" lon="-0.7537800247625634"><ele>1652.0</ele><time>2026-03-31T14:36:50Z</time></trkpt><trkpt lat="42.97964317994357" lon="-0.7537376002638638"><ele>1652.0</ele><time>2026-03-31T14:36:51Z</time></trkpt><trkpt lat="42.97972945603912" lon="-0.7537123783997055"><ele>1652.0</ele><time>2026-03-31T14:36:52Z</time></trkpt><trkpt lat="42.97982629125698" lon="-0.7536858616728557"><ele>1652.0</ele><time>2026-03-31T14:36:53Z</time></trkpt><trkpt lat="42.979927106225766" lon="-0.7536384161205818"><ele>1652.0</ele><time>2026-03-31T14:36:54Z</time></trkpt><trkpt lat="42.98002626806727" lon="-0.7535614121726711"><ele>1651.0</ele><time>2026-03-31T14:36:55Z</time></trkpt><trkpt lat="42.98012090400942" lon="-0.753473349756542"><ele>1650.0</ele><time>2026-03-31T14:36:56Z</time></trkpt><trkpt lat="42.98021512047051" lon="-0.7533837041009193"><ele>1649.0</ele><time>2026-03-31T14:36:57Z</time></trkpt><trkpt lat="42.98031255644921" lon="-0.7532983822246814"><ele>1648.0</ele><time>2026-03-31T14:36:58Z</time></trkpt><trkpt lat="42.98041211288826" lon="-0.7532110005088638"><ele>1648.0</ele><time>2026-03-31T14:36:59Z</time></trkpt><trkpt lat="42.98051117117152" lon="-0.753118037301466"><ele>1648.0</ele><time>2026-03-31T14:37:00Z</time></trkpt><trkpt lat="42.98060467936115" lon="-0.7530302346145159"><ele>1648.0</ele><time>2026-03-31T14:37:01Z</time></trkpt><trkpt lat="42.98069824401224" lon="-0.7529464858156105"><ele>1648.0</ele><time>2026-03-31T14:37:02Z</time></trkpt><trkpt lat="42.98078619924644" lon="-0.7528662917270876"><ele>1647.8000000000002</ele><time>2026-03-31T14:37:03Z</time></trkpt><trkpt lat="42.98086353137445" lon="-0.7527794992776728"><ele>1647.6</ele><time>2026-03-31T14:37:04Z</time></trkpt><trkpt lat="42.98091459873858" lon="-0.7526825996609966"><ele>1647.4</ele><time>2026-03-31T14:37:05Z</time></trkpt><trkpt lat="42.98093587869002" lon="-0.7525654011091197"><ele>1647.1999999999998</ele><time>2026-03-31T14:37:06Z</time></trkpt><trkpt lat="42.98093203293702" lon="-0.7524308672670371"><ele>1647.0</ele><time>2026-03-31T14:37:07Z</time></trkpt><trkpt lat="42.98091368442943" lon="-0.7522745570196333"><ele>1647.0</ele><time>2026-03-31T14:37:08Z</time></trkpt><trkpt lat="42.98089931527668" lon="-0.7520962184294757"><ele>1647.0</ele><time>2026-03-31T14:37:09Z</time></trkpt><trkpt lat="42.98088776444099" lon="-0.7519394082015045"><ele>1647.0</ele><time>2026-03-31T14:37:10Z</time></trkpt><trkpt lat="42.98087626910341" lon="-0.7518124196436148"><ele>1647.0</ele><time>2026-03-31T14:37:11Z</time></trkpt><trkpt lat="42.980860813178424" lon="-0.7516776917920275"><ele>1647.0</ele><time>2026-03-31T14:37:12Z</time></trkpt><trkpt lat="42.98084007001598" lon="-0.751513234010034"><ele>1645.8</ele><time>2026-03-31T14:37:13Z</time></trkpt><trkpt lat="42.98080771342629" lon="-0.7513495016829231"><ele>1644.6</ele><time>2026-03-31T14:37:14Z</time></trkpt><trkpt lat="42.98076594491278" lon="-0.7511934873005391"><ele>1643.3999999999999</ele><time>2026-03-31T14:37:15Z</time></trkpt><trkpt lat="42.98072558114709" lon="-0.7510639366674031"><ele>1642.1999999999998</ele><time>2026-03-31T14:37:16Z</time></trkpt><trkpt lat="42.98067482081937" lon="-0.7509517119083756"><ele>1641.0</ele><time>2026-03-31T14:37:17Z</time></trkpt><trkpt lat="42.98059861519595" lon="-0.7508474717166806"><ele>1638.8</ele><time>2026-03-31T14:37:18Z</time></trkpt><trkpt lat="42.98050421942443" lon="-0.7507541687189504"><ele>1636.6</ele><time>2026-03-31T14:37:19Z</time></trkpt><trkpt lat="42.980423111713804" lon="-0.7506712390652658"><ele>1634.4</ele><time>2026-03-31T14:37:20Z</time></trkpt><trkpt lat="42.98033640317229" lon="-0.7505742778314695"><ele>1632.2</ele><time>2026-03-31T14:37:21Z</time></trkpt><trkpt lat="42.98025510774177" lon="-0.7504748380847318"><ele>1630.0</ele><time>2026-03-31T14:37:22Z</time></trkpt><trkpt lat="42.98019725772021" lon="-0.7503751398153105"><ele>1630.0</ele><time>2026-03-31T14:37:23Z</time></trkpt><trkpt lat="42.98016000171493" lon="-0.7502761910416346"><ele>1630.0</ele><time>2026-03-31T14:37:24Z</time></trkpt><trkpt lat="42.980144992315786" lon="-0.7501690152652077"><ele>1630.0</ele><time>2026-03-31T14:37:25Z</time></trkpt><trkpt lat="42.98014062762868" lon="-0.750059175820673"><ele>1630.0</ele><time>2026-03-31T14:37:26Z</time></trkpt><trkpt lat="42.9802190020761" lon="-0.7498875785495649"><ele>1630.0</ele><time>2026-03-31T14:37:28Z</time></trkpt><trkpt lat="42.98027284654149" lon="-0.7497569619626528"><ele>1627.8</ele><time>2026-03-31T14:37:29Z</time></trkpt><trkpt lat="42.98032144303196" lon="-0.7496092302778046"><ele>1625.6</ele><time>2026-03-31T14:37:30Z</time></trkpt><trkpt lat="42.98035971723162" lon="-0.7494737610911143"><ele>1623.4</ele><time>2026-03-31T14:37:31Z</time></trkpt><trkpt lat="42.980371975805156" lon="-0.7493465000262446"><ele>1621.2</ele><time>2026-03-31T14:37:32Z</time></trkpt><trkpt lat="42.98037393687928" lon="-0.7492266545778776"><ele>1619.0</ele><time>2026-03-31T14:37:33Z</time></trkpt><trkpt lat="42.98035689991668" lon="-0.7491046334340015"><ele>1618.1666666666665</ele><time>2026-03-31T14:37:34Z</time></trkpt><trkpt lat="42.98033795806339" lon="-0.7489754065956796"><ele>1617.3333333333333</ele><time>2026-03-31T14:37:35Z</time></trkpt><trkpt lat="42.98032056930179" lon="-0.7488615202085824"><ele>1616.5</ele><time>2026-03-31T14:37:36Z</time></trkpt><trkpt lat="42.980317144519525" lon="-0.7487550707657156"><ele>1615.6666666666665</ele><time>2026-03-31T14:37:37Z</time></trkpt><trkpt lat="42.98028456740854" lon="-0.7486561799756049"><ele>1614.8333333333333</ele><time>2026-03-31T14:37:38Z</time></trkpt><trkpt lat="42.980283991548966" lon="-0.74853557616328"><ele>1614.0</ele><time>2026-03-31T14:37:39Z</time></trkpt><trkpt lat="42.98027453086746" lon="-0.7484128017276319"><ele>1613.6</ele><time>2026-03-31T14:37:40Z</time></trkpt><trkpt lat="42.98028699736698" lon="-0.7483010701790532"><ele>1613.2</ele><time>2026-03-31T14:37:41Z</time></trkpt><trkpt lat="42.98031949748332" lon="-0.7482152761073537"><ele>1612.8</ele><time>2026-03-31T14:37:42Z</time></trkpt><trkpt lat="42.98039720202701" lon="-0.7481341928639851"><ele>1612.3999999999999</ele><time>2026-03-31T14:37:44Z</time></trkpt><trkpt lat="42.980497734856314" lon="-0.748232089264818"><ele>1612.0</ele><time>2026-03-31T14:37:48Z</time></trkpt><trkpt lat="42.98056257203119" lon="-0.748321154837569"><ele>1612.0</ele><time>2026-03-31T14:37:49Z</time></trkpt><trkpt lat="42.98064029934326" lon="-0.7484470304612286"><ele>1612.0</ele><time>2026-03-31T14:37:50Z</time></trkpt><trkpt lat="42.980713828350375" lon="-0.7485838807318081"><ele>1612.0</ele><time>2026-03-31T14:37:51Z</time></trkpt><trkpt lat="42.9807916787197" lon="-0.7487243268859913"><ele>1612.0</ele><time>2026-03-31T14:37:52Z</time></trkpt><trkpt lat="42.980871910040825" lon="-0.7488540962857485"><ele>1611.6</ele><time>2026-03-31T14:37:53Z</time></trkpt><trkpt lat="42.9809417167523" lon="-0.7489786805625251"><ele>1611.1999999999998</ele><time>2026-03-31T14:37:54Z</time></trkpt><trkpt lat="42.981007292754136" lon="-0.7491008010109281"><ele>1610.8</ele><time>2026-03-31T14:37:55Z</time></trkpt><trkpt lat="42.981069679422355" lon="-0.7492248378540975"><ele>1610.4</ele><time>2026-03-31T14:37:56Z</time></trkpt><trkpt lat="42.981133445607" lon="-0.7493424076244661"><ele>1610.0</ele><time>2026-03-31T14:37:57Z</time></trkpt><trkpt lat="42.981202027900615" lon="-0.7494639418633441"><ele>1610.0</ele><time>2026-03-31T14:37:58Z</time></trkpt><trkpt lat="42.981273820537616" lon="-0.7495894888934279"><ele>1610.0</ele><time>2026-03-31T14:37:59Z</time></trkpt><trkpt lat="42.981349931518004" lon="-0.7497103418963021"><ele>1610.0</ele><time>2026-03-31T14:38:00Z</time></trkpt><trkpt lat="42.98142707240366" lon="-0.7498341405344024"><ele>1610.0</ele><time>2026-03-31T14:38:01Z</time></trkpt><trkpt lat="42.981504733636285" lon="-0.749928900165767"><ele>1609.9999999999998</ele><time>2026-03-31T14:38:02Z</time></trkpt><trkpt lat="42.981578878194895" lon="-0.7499651982025479"><ele>1610.0</ele><time>2026-03-31T14:38:03Z</time></trkpt><trkpt lat="42.981652427648704" lon="-0.7499623270230303"><ele>1610.0</ele><time>2026-03-31T14:38:04Z</time></trkpt><trkpt lat="42.981721986820496" lon="-0.749921931783645"><ele>1610.0</ele><time>2026-03-31T14:38:05Z</time></trkpt><trkpt lat="42.98177432461803" lon="-0.7498215581459994"><ele>1609.9999999999998</ele><time>2026-03-31T14:38:06Z</time></trkpt><trkpt lat="42.98187299725592" lon="-0.7497470372119304"><ele>1610.0</ele><time>2026-03-31T14:38:07Z</time></trkpt><trkpt lat="42.981979926810496" lon="-0.7496356602560864"><ele>1608.25</ele><time>2026-03-31T14:38:08Z</time></trkpt><trkpt lat="42.98208928500752" lon="-0.749536655153686"><ele>1606.5</ele><time>2026-03-31T14:38:09Z</time></trkpt><trkpt lat="42.982190571345484" lon="-0.7494459244890194"><ele>1604.75</ele><time>2026-03-31T14:38:10Z</time></trkpt><trkpt lat="42.9822855844449" lon="-0.7493497636042167"><ele>1603.0</ele><time>2026-03-31T14:38:11Z</time></trkpt><trkpt lat="42.9823732771696" lon="-0.7492398770193218"><ele>1599.8000000000002</ele><time>2026-03-31T14:38:12Z</time></trkpt><trkpt lat="42.982454150590556" lon="-0.7491214995836617"><ele>1596.6</ele><time>2026-03-31T14:38:13Z</time></trkpt><trkpt lat="42.98253227870709" lon="-0.7490003427942241"><ele>1593.4</ele><time>2026-03-31T14:38:14Z</time></trkpt><trkpt lat="42.982602978776626" lon="-0.7488916509655601"><ele>1590.1999999999998</ele><time>2026-03-31T14:38:15Z</time></trkpt><trkpt lat="42.9826762207413" lon="-0.7488044348591782"><ele>1587.0</ele><time>2026-03-31T14:38:16Z</time></trkpt><trkpt lat="42.98275165405998" lon="-0.7487513404916998"><ele>1585.1999999999998</ele><time>2026-03-31T14:38:17Z</time></trkpt><trkpt lat="42.982834155924664" lon="-0.7487294958787616"><ele>1583.4</ele><time>2026-03-31T14:38:18Z</time></trkpt><trkpt lat="42.98292104324707" lon="-0.7487599500348118"><ele>1581.6</ele><time>2026-03-31T14:38:19Z</time></trkpt><trkpt lat="42.98300077830133" lon="-0.7488485434388578"><ele>1579.8000000000002</ele><time>2026-03-31T14:38:20Z</time></trkpt><trkpt lat="42.98306683862141" lon="-0.7489781894462668"><ele>1578.0</ele><time>2026-03-31T14:38:21Z</time></trkpt><trkpt lat="42.98311708810587" lon="-0.7491350972080508"><ele>1578.0</ele><time>2026-03-31T14:38:22Z</time></trkpt><trkpt lat="42.98316352323639" lon="-0.7493077190878418"><ele>1578.0</ele><time>2026-03-31T14:38:23Z</time></trkpt><trkpt lat="42.983209889542564" lon="-0.7494895664569877"><ele>1578.0</ele><time>2026-03-31T14:38:24Z</time></trkpt><trkpt lat="42.98324783683319" lon="-0.7496665707222365"><ele>1578.0</ele><time>2026-03-31T14:38:25Z</time></trkpt><trkpt lat="42.98327772571268" lon="-0.749836487116125"><ele>1578.5</ele><time>2026-03-31T14:38:26Z</time></trkpt><trkpt lat="42.9833124242753" lon="-0.7500045689164572"><ele>1579.0</ele><time>2026-03-31T14:38:27Z</time></trkpt><trkpt lat="42.983362675808344" lon="-0.7501728758348385"><ele>1579.5</ele><time>2026-03-31T14:38:28Z</time></trkpt><trkpt lat="42.983423368736474" lon="-0.7503359546199494"><ele>1580.0</ele><time>2026-03-31T14:38:29Z</time></trkpt><trkpt lat="42.98348415791679" lon="-0.7504918735343329"><ele>1574.75</ele><time>2026-03-31T14:38:30Z</time></trkpt><trkpt lat="42.98353490543835" lon="-0.7506435766349391"><ele>1569.5</ele><time>2026-03-31T14:38:31Z</time></trkpt><trkpt lat="42.98357289022534" lon="-0.7507960615309497"><ele>1564.25</ele><time>2026-03-31T14:38:32Z</time></trkpt><trkpt lat="42.98359942056948" lon="-0.750946457953036"><ele>1559.0</ele><time>2026-03-31T14:38:33Z</time></trkpt><trkpt lat="42.98362531370155" lon="-0.7511030418016685"><ele>1558.0</ele><time>2026-03-31T14:38:34Z</time></trkpt><trkpt lat="42.983652384067774" lon="-0.7512820166825459"><ele>1557.0</ele><time>2026-03-31T14:38:35Z</time></trkpt><trkpt lat="42.983682888150035" lon="-0.751467967109691"><ele>1556.0</ele><time>2026-03-31T14:38:36Z</time></trkpt><trkpt lat="42.98372277474719" lon="-0.7516499117305325"><ele>1555.0</ele><time>2026-03-31T14:38:37Z</time></trkpt><trkpt lat="42.983771056806034" lon="-0.7518173191297158"><ele>1555.25</ele><time>2026-03-31T14:38:38Z</time></trkpt><trkpt lat="42.98382303088205" lon="-0.7519629364733332"><ele>1555.5</ele><time>2026-03-31T14:38:39Z</time></trkpt><trkpt lat="42.983876774352794" lon="-0.7520958772875473"><ele>1555.75</ele><time>2026-03-31T14:38:40Z</time></trkpt><trkpt lat="42.9839418873232" lon="-0.7522267709766869"><ele>1556.0</ele><time>2026-03-31T14:38:41Z</time></trkpt><trkpt lat="42.9840234779532" lon="-0.7523692818403476"><ele>1556.0</ele><time>2026-03-31T14:38:42Z</time></trkpt><trkpt lat="42.9841045494322" lon="-0.7525064909043028"><ele>1556.0</ele><time>2026-03-31T14:38:43Z</time></trkpt><trkpt lat="42.984179510887245" lon="-0.7526285685010579"><ele>1556.0</ele><time>2026-03-31T14:38:44Z</time></trkpt><trkpt lat="42.9842526677996" lon="-0.7527456722988252"><ele>1556.0</ele><time>2026-03-31T14:38:45Z</time></trkpt><trkpt lat="42.98432112543693" lon="-0.7528639350886177"><ele>1552.0</ele><time>2026-03-31T14:38:46Z</time></trkpt><trkpt lat="42.98439810678928" lon="-0.7529779011135748"><ele>1548.0</ele><time>2026-03-31T14:38:47Z</time></trkpt><trkpt lat="42.984477022035314" lon="-0.7531030973953414"><ele>1544.0</ele><time>2026-03-31T14:38:48Z</time></trkpt><trkpt lat="42.98456532463659" lon="-0.75323079889918"><ele>1540.0</ele><time>2026-03-31T14:38:49Z</time></trkpt><trkpt lat="42.98465990773805" lon="-0.7533604214423396"><ele>1540.0</ele><time>2026-03-31T14:38:50Z</time></trkpt><trkpt lat="42.98476011204772" lon="-0.7534700699075497"><ele>1540.0</ele><time>2026-03-31T14:38:51Z</time></trkpt><trkpt lat="42.984858956492" lon="-0.7535524897825501"><ele>1540.0</ele><time>2026-03-31T14:38:52Z</time></trkpt><trkpt lat="42.98497730900196" lon="-0.7536126472359528"><ele>1540.0</ele><time>2026-03-31T14:38:53Z</time></trkpt><trkpt lat="42.98510761873617" lon="-0.7536612555375914"><ele>1539.25</ele><time>2026-03-31T14:38:54Z</time></trkpt><trkpt lat="42.98524479974288" lon="-0.7536997220710077"><ele>1538.5</ele><time>2026-03-31T14:38:55Z</time></trkpt><trkpt lat="42.985385358386345" lon="-0.7537335073793794"><ele>1537.75</ele><time>2026-03-31T14:38:56Z</time></trkpt><trkpt lat="42.9855202477418" lon="-0.7537705442176775"><ele>1537.0</ele><time>2026-03-31T14:38:57Z</time></trkpt><trkpt lat="42.985648241042426" lon="-0.7538420968881198"><ele>1537.0</ele><time>2026-03-31T14:38:58Z</time></trkpt><trkpt lat="42.98576081842043" lon="-0.7539338422192452"><ele>1537.0</ele><time>2026-03-31T14:38:59Z</time></trkpt><trkpt lat="42.985864829312085" lon="-0.7540308790532042"><ele>1537.0</ele><time>2026-03-31T14:39:00Z</time></trkpt><trkpt lat="42.98597407201536" lon="-0.7541246381212282"><ele>1537.0</ele><time>2026-03-31T14:39:01Z</time></trkpt><trkpt lat="42.986090539752254" lon="-0.7542087728909966"><ele>1535.75</ele><time>2026-03-31T14:39:02Z</time></trkpt><trkpt lat="42.98621302315145" lon="-0.7542869977506682"><ele>1534.5</ele><time>2026-03-31T14:39:03Z</time></trkpt><trkpt lat="42.98633395727558" lon="-0.7543733788173848"><ele>1533.25</ele><time>2026-03-31T14:39:04Z</time></trkpt><trkpt lat="42.986450235305234" lon="-0.7544641296920176"><ele>1532.0</ele><time>2026-03-31T14:39:05Z</time></trkpt><trkpt lat="42.98656072114876" lon="-0.7545448120977378"><ele>1532.0</ele><time>2026-03-31T14:39:06Z</time></trkpt><trkpt lat="42.98665689067161" lon="-0.7546124943713373"><ele>1532.0</ele><time>2026-03-31T14:39:07Z</time></trkpt><trkpt lat="42.986744590735455" lon="-0.7546669585366652"><ele>1532.0</ele><time>2026-03-31T14:39:08Z</time></trkpt><trkpt lat="42.98682288204182" lon="-0.7547046577816418"><ele>1532.0</ele><time>2026-03-31T14:39:09Z</time></trkpt><trkpt lat="42.98690102474822" lon="-0.7547092663024005"><ele>1532.0</ele><time>2026-03-31T14:39:10Z</time></trkpt><trkpt lat="42.98696841815967" lon="-0.7546658117714542"><ele>1532.0</ele><time>2026-03-31T14:39:11Z</time></trkpt><trkpt lat="42.98703269668718" lon="-0.7545835863096668"><ele>1532.0</ele><time>2026-03-31T14:39:12Z</time></trkpt><trkpt lat="42.987079242904215" lon="-0.7544761590234196"><ele>1532.0</ele><time>2026-03-31T14:39:13Z</time></trkpt><trkpt lat="42.98709633940474" lon="-0.7543482596463251"><ele>1532.0</ele><time>2026-03-31T14:39:14Z</time></trkpt><trkpt lat="42.98706234606288" lon="-0.7542218478976493"><ele>1532.0</ele><time>2026-03-31T14:39:15Z</time></trkpt><trkpt lat="42.98701287978866" lon="-0.7540892462560957"><ele>1532.0</ele><time>2026-03-31T14:39:16Z</time></trkpt><trkpt lat="42.98697910265783" lon="-0.7539674082563799"><ele>1530.75</ele><time>2026-03-31T14:39:17Z</time></trkpt><trkpt lat="42.98692825915422" lon="-0.7538263083996646"><ele>1529.5</ele><time>2026-03-31T14:39:18Z</time></trkpt><trkpt lat="42.98687632501595" lon="-0.7536535198800769"><ele>1528.25</ele><time>2026-03-31T14:39:19Z</time></trkpt><trkpt lat="42.98682311690662" lon="-0.7534773817499426"><ele>1527.0</ele><time>2026-03-31T14:39:20Z</time></trkpt><trkpt lat="42.98676757590725" lon="-0.753308038750362"><ele>1525.75</ele><time>2026-03-31T14:39:21Z</time></trkpt><trkpt lat="42.98670839005188" lon="-0.7531411453979017"><ele>1524.5</ele><time>2026-03-31T14:39:22Z</time></trkpt><trkpt lat="42.98664720765195" lon="-0.7529736712962443"><ele>1523.25</ele><time>2026-03-31T14:39:23Z</time></trkpt><trkpt lat="42.98657638882892" lon="-0.7528200123094285"><ele>1522.0</ele><time>2026-03-31T14:39:24Z</time></trkpt><trkpt lat="42.986493641496615" lon="-0.7526641838483414"><ele>1520.75</ele><time>2026-03-31T14:39:25Z</time></trkpt><trkpt lat="42.986403177227494" lon="-0.7525178960394276"><ele>1519.5</ele><time>2026-03-31T14:39:26Z</time></trkpt><trkpt lat="42.98632000271174" lon="-0.7523752140312808"><ele>1518.25</ele><time>2026-03-31T14:39:27Z</time></trkpt><trkpt lat="42.98625403498438" lon="-0.7522181697163015"><ele>1517.0</ele><time>2026-03-31T14:39:28Z</time></trkpt><trkpt lat="42.98621219338596" lon="-0.7520480827560287"><ele>1517.0</ele><time>2026-03-31T14:39:29Z</time></trkpt><trkpt lat="42.98619342039051" lon="-0.7518730995881295"><ele>1517.0</ele><time>2026-03-31T14:39:30Z</time></trkpt><trkpt lat="42.98619369512554" lon="-0.7517006414527064"><ele>1517.0</ele><time>2026-03-31T14:39:31Z</time></trkpt><trkpt lat="42.98619204656146" lon="-0.751541524036086"><ele>1517.0</ele><time>2026-03-31T14:39:32Z</time></trkpt><trkpt lat="42.98618886747477" lon="-0.7514001573362667"><ele>1517.0</ele><time>2026-03-31T14:39:33Z</time></trkpt><trkpt lat="42.986185246931704" lon="-0.7512632734209818"><ele>1517.0</ele><time>2026-03-31T14:39:34Z</time></trkpt><trkpt lat="42.98617318259244" lon="-0.7511151233986202"><ele>1517.0</ele><time>2026-03-31T14:39:35Z</time></trkpt><trkpt lat="42.986148750332156" lon="-0.7509516280187949"><ele>1517.0</ele><time>2026-03-31T14:39:36Z</time></trkpt><trkpt lat="42.98611249607181" lon="-0.7507626693890851"><ele>1516.3333333333335</ele><time>2026-03-31T14:39:37Z</time></trkpt><trkpt lat="42.9860728239443" lon="-0.7505584875823347"><ele>1515.6666666666667</ele><time>2026-03-31T14:39:38Z</time></trkpt><trkpt lat="42.9860369619571" lon="-0.7503505315391995"><ele>1515.0</ele><time>2026-03-31T14:39:39Z</time></trkpt><trkpt lat="42.98600888847566" lon="-0.7501383798071302"><ele>1514.3333333333333</ele><time>2026-03-31T14:39:40Z</time></trkpt><trkpt lat="42.985982590219976" lon="-0.7499218407250515"><ele>1513.6666666666665</ele><time>2026-03-31T14:39:41Z</time></trkpt><trkpt lat="42.98595475836095" lon="-0.7497096282627442"><ele>1513.0</ele><time>2026-03-31T14:39:42Z</time></trkpt><trkpt lat="42.98592808478916" lon="-0.7495054613436367"><ele>1513.25</ele><time>2026-03-31T14:39:43Z</time></trkpt><trkpt lat="42.98590560599183" lon="-0.74931261967684"><ele>1513.5</ele><time>2026-03-31T14:39:44Z</time></trkpt><trkpt lat="42.985883361601466" lon="-0.7491348481410337"><ele>1513.75</ele><time>2026-03-31T14:39:45Z</time></trkpt><trkpt lat="42.98585317589105" lon="-0.7489575031347739"><ele>1514.0</ele><time>2026-03-31T14:39:46Z</time></trkpt><trkpt lat="42.985821759243784" lon="-0.7487854670667988"><ele>1513.5</ele><time>2026-03-31T14:39:47Z</time></trkpt><trkpt lat="42.98579467082544" lon="-0.7486311383043125"><ele>1513.0</ele><time>2026-03-31T14:39:48Z</time></trkpt><trkpt lat="42.98577202536678" lon="-0.7484880375776987"><ele>1512.5</ele><time>2026-03-31T14:39:49Z</time></trkpt><trkpt lat="42.985737286972714" lon="-0.7483405984526555"><ele>1512.0</ele><time>2026-03-31T14:39:50Z</time></trkpt><trkpt lat="42.98568881543652" lon="-0.7481933445392623"><ele>1512.0</ele><time>2026-03-31T14:39:51Z</time></trkpt><trkpt lat="42.98560664210441" lon="-0.7480780803916683"><ele>1512.0</ele><time>2026-03-31T14:39:52Z</time></trkpt><trkpt lat="42.985529040308016" lon="-0.747943793866552"><ele>1512.0</ele><time>2026-03-31T14:39:53Z</time></trkpt><trkpt lat="42.98543468931451" lon="-0.7478231855175245"><ele>1512.0</ele><time>2026-03-31T14:39:54Z</time></trkpt><trkpt lat="42.98534846932149" lon="-0.747679018116524"><ele>1510.5</ele><time>2026-03-31T14:39:55Z</time></trkpt><trkpt lat="42.98527483773405" lon="-0.7475048988461237"><ele>1509.0</ele><time>2026-03-31T14:39:56Z</time></trkpt><trkpt lat="42.98521518084542" lon="-0.7473144797762301"><ele>1507.5</ele><time>2026-03-31T14:39:57Z</time></trkpt><trkpt lat="42.985160066020164" lon="-0.7471227719986346"><ele>1506.0</ele><time>2026-03-31T14:39:58Z</time></trkpt><trkpt lat="42.985110880747115" lon="-0.7469436185120839"><ele>1506.25</ele><time>2026-03-31T14:39:59Z</time></trkpt><trkpt lat="42.98506476132492" lon="-0.7467791666553706"><ele>1506.5</ele><time>2026-03-31T14:40:00Z</time></trkpt><trkpt lat="42.98501514857681" lon="-0.7466385881283965"><ele>1506.75</ele><time>2026-03-31T14:40:01Z</time></trkpt><trkpt lat="42.98494687082656" lon="-0.7465096054695493"><ele>1507.0</ele><time>2026-03-31T14:40:02Z</time></trkpt><trkpt lat="42.98486212591477" lon="-0.7463943883003185"><ele>1507.0</ele><time>2026-03-31T14:40:03Z</time></trkpt><trkpt lat="42.98476172075588" lon="-0.7462782617068531"><ele>1507.0</ele><time>2026-03-31T14:40:04Z</time></trkpt><trkpt lat="42.984652138863886" lon="-0.7461597368750612"><ele>1507.0</ele><time>2026-03-31T14:40:05Z</time></trkpt><trkpt lat="42.98454749868365" lon="-0.7460292940590056"><ele>1507.0</ele><time>2026-03-31T14:40:06Z</time></trkpt><trkpt lat="42.984457445940926" lon="-0.7458863668572585"><ele>1504.5</ele><time>2026-03-31T14:40:07Z</time></trkpt><trkpt lat="42.9843881348355" lon="-0.7457311579797598"><ele>1502.0</ele><time>2026-03-31T14:40:08Z</time></trkpt><trkpt lat="42.9843468693604" lon="-0.7455605419549032"><ele>1499.5</ele><time>2026-03-31T14:40:09Z</time></trkpt><trkpt lat="42.984328634717954" lon="-0.745382209283851"><ele>1497.0</ele><time>2026-03-31T14:40:10Z</time></trkpt><trkpt lat="42.98431743510885" lon="-0.7452025494582565"><ele>1497.75</ele><time>2026-03-31T14:40:11Z</time></trkpt><trkpt lat="42.98429770244296" lon="-0.7450221956074684"><ele>1498.5</ele><time>2026-03-31T14:40:12Z</time></trkpt><trkpt lat="42.984255123945644" lon="-0.7448447820252517"><ele>1499.25</ele><time>2026-03-31T14:40:13Z</time></trkpt><trkpt lat="42.98418532784311" lon="-0.7446830882811286"><ele>1500.0</ele><time>2026-03-31T14:40:14Z</time></trkpt><trkpt lat="42.98410649402385" lon="-0.7445537261867894"><ele>1500.0</ele><time>2026-03-31T14:40:15Z</time></trkpt><trkpt lat="42.98401976743012" lon="-0.7444655846196251"><ele>1500.0</ele><time>2026-03-31T14:40:16Z</time></trkpt><trkpt lat="42.98393791575448" lon="-0.7444025613822102"><ele>1500.0</ele><time>2026-03-31T14:40:17Z</time></trkpt><trkpt lat="42.98385849942798" lon="-0.7443490227161106"><ele>1500.0</ele><time>2026-03-31T14:40:18Z</time></trkpt><trkpt lat="42.983807876738005" lon="-0.7442611648096987"><ele>1500.0</ele><time>2026-03-31T14:40:19Z</time></trkpt><trkpt lat="42.98377082856783" lon="-0.7441578584216216"><ele>1499.0</ele><time>2026-03-31T14:40:20Z</time></trkpt><trkpt lat="42.983770931905106" lon="-0.744011725829703"><ele>1498.0</ele><time>2026-03-31T14:40:21Z</time></trkpt><trkpt lat="42.983815092332755" lon="-0.7438559818760406"><ele>1497.0</ele><time>2026-03-31T14:40:22Z</time></trkpt><trkpt lat="42.98385167939851" lon="-0.7436771456968526"><ele>1496.0</ele><time>2026-03-31T14:40:23Z</time></trkpt><trkpt lat="42.98389454169215" lon="-0.7434942992821223"><ele>1494.0</ele><time>2026-03-31T14:40:24Z</time></trkpt><trkpt lat="42.98391896183713" lon="-0.7433134932897596"><ele>1492.0</ele><time>2026-03-31T14:40:25Z</time></trkpt><trkpt lat="42.983964219376844" lon="-0.7431439520855354"><ele>1490.0</ele><time>2026-03-31T14:40:26Z</time></trkpt><trkpt lat="42.984032223222194" lon="-0.7430068405003382"><ele>1488.0</ele><time>2026-03-31T14:40:27Z</time></trkpt><trkpt lat="42.98410016319624" lon="-0.742877946374069"><ele>1486.6000000000001</ele><time>2026-03-31T14:40:28Z</time></trkpt><trkpt lat="42.984182238523125" lon="-0.742776132133957"><ele>1485.2</ele><time>2026-03-31T14:40:29Z</time></trkpt><trkpt lat="42.98428017784442" lon="-0.7427000002037932"><ele>1483.8</ele><time>2026-03-31T14:40:30Z</time></trkpt><trkpt lat="42.984387845687685" lon="-0.7426456148054477"><ele>1482.4</ele><time>2026-03-31T14:40:31Z</time></trkpt><trkpt lat="42.98448925079204" lon="-0.7426188227244486"><ele>1481.0</ele><time>2026-03-31T14:40:32Z</time></trkpt><trkpt lat="42.98455271050873" lon="-0.7426129820626686"><ele>1481.0</ele><time>2026-03-31T14:40:33Z</time></trkpt><trkpt lat="42.98462550050053" lon="-0.742602279301992"><ele>1481.0</ele><time>2026-03-31T14:40:36Z</time></trkpt><trkpt lat="42.984719293829706" lon="-0.7426540228109556"><ele>1481.0</ele><time>2026-03-31T14:41:53Z</time></trkpt><trkpt lat="42.984817582881846" lon="-0.7427223621092214"><ele>1481.0</ele><time>2026-03-31T14:41:55Z</time></trkpt><trkpt lat="42.9848799088518" lon="-0.7427879196478299"><ele>1481.0</ele><time>2026-03-31T14:41:57Z</time></trkpt><trkpt lat="42.98493081020729" lon="-0.742848253791626"><ele>1481.0</ele><time>2026-03-31T14:41:59Z</time></trkpt><trkpt lat="42.984986132339856" lon="-0.7428977383345189"><ele>1480.3333333333335</ele><time>2026-03-31T14:42:02Z</time></trkpt><trkpt lat="42.9850322164172" lon="-0.7429797776145916"><ele>1479.6666666666667</ele><time>2026-03-31T14:42:11Z</time></trkpt><trkpt lat="42.98507294532531" lon="-0.74307360849951"><ele>1479.0</ele><time>2026-03-31T14:42:12Z</time></trkpt><trkpt lat="42.985119546955104" lon="-0.7431557139174537"><ele>1478.3333333333333</ele><time>2026-03-31T14:42:13Z</time></trkpt><trkpt lat="42.98518853978639" lon="-0.7432492412398717"><ele>1477.6666666666665</ele><time>2026-03-31T14:42:14Z</time></trkpt><trkpt lat="42.98527136763929" lon="-0.7433164116858431"><ele>1477.0</ele><time>2026-03-31T14:42:15Z</time></trkpt><trkpt lat="42.985355160651764" lon="-0.7433953795013455"><ele>1477.0</ele><time>2026-03-31T14:42:16Z</time></trkpt><trkpt lat="42.98544931938694" lon="-0.7434754473925068"><ele>1477.0</ele><time>2026-03-31T14:42:17Z</time></trkpt><trkpt lat="42.98553758293613" lon="-0.7435534600968168"><ele>1477.0</ele><time>2026-03-31T14:42:18Z</time></trkpt><trkpt lat="42.98562429778696" lon="-0.7436113980173994"><ele>1477.0</ele><time>2026-03-31T14:42:19Z</time></trkpt><trkpt lat="42.985717393277014" lon="-0.7436600780105281"><ele>1477.0</ele><time>2026-03-31T14:42:20Z</time></trkpt><trkpt lat="42.9858097861638" lon="-0.743669540478966"><ele>1476.8</ele><time>2026-03-31T14:42:21Z</time></trkpt><trkpt lat="42.9858908126059" lon="-0.7436375268863684"><ele>1476.6</ele><time>2026-03-31T14:42:22Z</time></trkpt><trkpt lat="42.98595829714167" lon="-0.7435516888109723"><ele>1476.3999999999999</ele><time>2026-03-31T14:42:23Z</time></trkpt><trkpt lat="42.98598863742298" lon="-0.7434451592662094"><ele>1476.1999999999998</ele><time>2026-03-31T14:42:24Z</time></trkpt><trkpt lat="42.98603640061055" lon="-0.7433351022940164"><ele>1476.0</ele><time>2026-03-31T14:42:25Z</time></trkpt><trkpt lat="42.98611661716317" lon="-0.7432527068023417"><ele>1476.0</ele><time>2026-03-31T14:42:26Z</time></trkpt><trkpt lat="42.986203274183026" lon="-0.7431799634649643"><ele>1476.0</ele><time>2026-03-31T14:42:27Z</time></trkpt><trkpt lat="42.98630149972557" lon="-0.7431470890838305"><ele>1476.0</ele><time>2026-03-31T14:42:28Z</time></trkpt><trkpt lat="42.986390582097975" lon="-0.7431407264931207"><ele>1476.0</ele><time>2026-03-31T14:42:29Z</time></trkpt><trkpt lat="42.986468215863745" lon="-0.7431243179168071"><ele>1476.0</ele><time>2026-03-31T14:42:30Z</time></trkpt><trkpt lat="42.98653539311532" lon="-0.7430773512819617"><ele>1476.0</ele><time>2026-03-31T14:42:31Z</time></trkpt><trkpt lat="42.98658233305055" lon="-0.7430009792660395"><ele>1476.0</ele><time>2026-03-31T14:42:32Z</time></trkpt><trkpt lat="42.986609201042725" lon="-0.742896729010532"><ele>1476.0</ele><time>2026-03-31T14:42:33Z</time></trkpt><trkpt lat="42.98661547527365" lon="-0.7427597344905127"><ele>1476.0</ele><time>2026-03-31T14:42:34Z</time></trkpt><trkpt lat="42.98666757040201" lon="-0.7426190061409284"><ele>1476.0</ele><time>2026-03-31T14:42:35Z</time></trkpt><trkpt lat="42.98671168724696" lon="-0.7424648731042345"><ele>1476.0</ele><time>2026-03-31T14:42:36Z</time></trkpt><trkpt lat="42.986766923306895" lon="-0.7423186643210914"><ele>1473.1999999999998</ele><time>2026-03-31T14:42:37Z</time></trkpt><trkpt lat="42.98681874099572" lon="-0.7421787315559141"><ele>1470.3999999999999</ele><time>2026-03-31T14:42:38Z</time></trkpt><trkpt lat="42.98685937519089" lon="-0.7420370279835404"><ele>1467.6</ele><time>2026-03-31T14:42:39Z</time></trkpt><trkpt lat="42.98689054972318" lon="-0.7419091723547566"><ele>1464.8</ele><time>2026-03-31T14:42:40Z</time></trkpt><trkpt lat="42.98694821200039" lon="-0.7417915549098232"><ele>1462.0</ele><time>2026-03-31T14:42:41Z</time></trkpt><trkpt lat="42.987030427205326" lon="-0.7417146451610189"><ele>1457.0</ele><time>2026-03-31T14:42:42Z</time></trkpt><trkpt lat="42.988187824337395" lon="-0.7414095178330957"><ele>1457.0</ele><time>2026-03-31T14:42:53.963Z</time></trkpt><trkpt lat="42.9882426254109" lon="-0.7413596618966315"><ele>1457.0</ele><time>2026-03-31T14:42:55.2Z</time></trkpt><trkpt lat="42.988299957216185" lon="-0.7412449712003203"><ele>1457.0</ele><time>2026-03-31T14:42:56.4Z</time></trkpt><trkpt lat="42.98836051133035" lon="-0.7411033016071336"><ele>1457.0</ele><time>2026-03-31T14:42:58Z</time></trkpt><trkpt lat="42.988399859614105" lon="-0.740999940363412"><ele>1457.0</ele><time>2026-03-31T14:42:59Z</time></trkpt><trkpt lat="42.98845692070788" lon="-0.7408066612332104"><ele>1456.75</ele><time>2026-03-31T14:43:00.5Z</time></trkpt><trkpt lat="42.98848511746595" lon="-0.7405735344822263"><ele>1456.5</ele><time>2026-03-31T14:43:02Z</time></trkpt><trkpt lat="42.98851019453119" lon="-0.7404183931018896"><ele>1456.25</ele><time>2026-03-31T14:43:03Z</time></trkpt><trkpt lat="42.98855801626116" lon="-0.7402706343752252"><ele>1456.0</ele><time>2026-03-31T14:43:04Z</time></trkpt><trkpt lat="42.98862514892866" lon="-0.7401475073966146"><ele>1455.4</ele><time>2026-03-31T14:43:05Z</time></trkpt><trkpt lat="42.988713230066125" lon="-0.7400589390466764"><ele>1454.8</ele><time>2026-03-31T14:43:06Z</time></trkpt><trkpt lat="42.98879754795522" lon="-0.7400135472402187"><ele>1454.2</ele><time>2026-03-31T14:43:07Z</time></trkpt><trkpt lat="42.9889318966166" lon="-0.7399936604680352"><ele>1453.6000000000001</ele><time>2026-03-31T14:43:08.5Z</time></trkpt><trkpt lat="42.98901436054591" lon="-0.739985335303134"><ele>1453.0</ele><time>2026-03-31T14:43:09.5Z</time></trkpt><trkpt lat="42.989102091943195" lon="-0.739958279304525"><ele>1451.0</ele><time>2026-03-31T14:43:10.5Z</time></trkpt><trkpt lat="42.989219681935936" lon="-0.7399224051706176"><ele>1449.0</ele><time>2026-03-31T14:43:11.5Z</time></trkpt><trkpt lat="42.98938731484158" lon="-0.7398933172838231"><ele>1447.0</ele><time>2026-03-31T14:43:13Z</time></trkpt><trkpt lat="42.98949318983174" lon="-0.7398669000858511"><ele>1445.0</ele><time>2026-03-31T14:43:14Z</time></trkpt><trkpt lat="42.98960382878972" lon="-0.7397942627904056"><ele>1445.0</ele><time>2026-03-31T14:43:15.5Z</time></trkpt><trkpt lat="42.989635467622925" lon="-0.7396710013230628"><ele>1445.0</ele><time>2026-03-31T14:43:16.5Z</time></trkpt><trkpt lat="42.989726432606666" lon="-0.7394885149388251"><ele>1445.0</ele><time>2026-03-31T14:43:18Z</time></trkpt><trkpt lat="42.989790172075544" lon="-0.7393649447213622"><ele>1445.0</ele><time>2026-03-31T14:43:19Z</time></trkpt><trkpt lat="42.98985945977623" lon="-0.7392341477288642"><ele>1444.4</ele><time>2026-03-31T14:43:20Z</time></trkpt><trkpt lat="42.989922702062124" lon="-0.7391147629229444"><ele>1443.8</ele><time>2026-03-31T14:43:21Z</time></trkpt><trkpt lat="42.9899809403698" lon="-0.7390048242852456"><ele>1443.1999999999998</ele><time>2026-03-31T14:43:22Z</time></trkpt><trkpt lat="42.99003415264469" lon="-0.7388998732356429"><ele>1442.6</ele><time>2026-03-31T14:43:23Z</time></trkpt><trkpt lat="42.99009094388083" lon="-0.7387946056280588"><ele>1442.0</ele><time>2026-03-31T14:43:24Z</time></trkpt><trkpt lat="42.99017049425083" lon="-0.73870082680095"><ele>1440.3999999999999</ele><time>2026-03-31T14:43:25Z</time></trkpt><trkpt lat="42.99023432261832" lon="-0.7385889972987147"><ele>1438.8</ele><time>2026-03-31T14:43:26Z</time></trkpt><trkpt lat="42.99031060189513" lon="-0.7384846841760653"><ele>1437.2</ele><time>2026-03-31T14:43:27Z</time></trkpt><trkpt lat="42.99038037247231" lon="-0.7383944415930782"><ele>1435.6</ele><time>2026-03-31T14:43:28Z</time></trkpt><trkpt lat="42.990448288576104" lon="-0.7383394900429596"><ele>1434.0</ele><time>2026-03-31T14:43:29Z</time></trkpt><trkpt lat="42.99051580013076" lon="-0.7382996387085542"><ele>1434.0</ele><time>2026-03-31T14:43:30Z</time></trkpt><trkpt lat="42.990629516882706" lon="-0.7383450995455947"><ele>1434.0</ele><time>2026-03-31T14:43:32Z</time></trkpt><trkpt lat="42.99067879811961" lon="-0.7384002483394166"><ele>1434.0</ele><time>2026-03-31T14:43:33Z</time></trkpt><trkpt lat="42.9907387286911" lon="-0.7384677656008588"><ele>1434.0</ele><time>2026-03-31T14:43:35Z</time></trkpt><trkpt lat="42.99078525099499" lon="-0.7385413100447988"><ele>1434.0</ele><time>2026-03-31T14:43:37Z</time></trkpt><trkpt lat="42.99065986447859" lon="-0.7385121007521456"><ele>1434.0</ele><time>2026-03-31T14:43:42Z</time></trkpt><trkpt lat="42.990620621752186" lon="-0.7384018231045922"><ele>1434.0</ele><time>2026-03-31T14:43:43Z</time></trkpt><trkpt lat="42.9905588810727" lon="-0.7383584699874453"><ele>1434.0</ele><time>2026-03-31T14:43:45Z</time></trkpt><trkpt lat="42.99049833387612" lon="-0.7382926827666038"><ele>1434.0</ele><time>2026-03-31T14:43:47Z</time></trkpt><trkpt lat="42.99046434593801" lon="-0.738212597630291"><ele>1434.0</ele><time>2026-03-31T14:43:48Z</time></trkpt><trkpt lat="42.99043385482943" lon="-0.7381250676055582"><ele>1434.0</ele><time>2026-03-31T14:43:49Z</time></trkpt><trkpt lat="42.990385847419276" lon="-0.7380111283032413"><ele>1434.0</ele><time>2026-03-31T14:43:51Z</time></trkpt><trkpt lat="42.99035483473352" lon="-0.7379266208605795"><ele>1434.0</ele><time>2026-03-31T14:43:54Z</time></trkpt><trkpt lat="42.990320957779595" lon="-0.7378344967802967"><ele>1434.0</ele><time>2026-03-31T14:43:57Z</time></trkpt><trkpt lat="42.990349336057136" lon="-0.7379164670644768"><ele>1434.0</ele><time>2026-03-31T14:45:25Z</time></trkpt><trkpt lat="42.990370706546244" lon="-0.7380172912872086"><ele>1434.0</ele><time>2026-03-31T14:47:10Z</time></trkpt><trkpt lat="42.990411882008814" lon="-0.7380990522749381"><ele>1434.0</ele><time>2026-03-31T14:47:12Z</time></trkpt><trkpt lat="42.990434866024934" lon="-0.7382240090924915"><ele>1434.0</ele><time>2026-03-31T14:47:15Z</time></trkpt><trkpt lat="42.99052321449778" lon="-0.7382744340512822"><ele>1434.0</ele><time>2026-03-31T14:47:18Z</time></trkpt><trkpt lat="42.990637634833156" lon="-0.738403477086268"><ele>1434.0</ele><time>2026-03-31T14:47:20Z</time></trkpt><trkpt lat="42.99072842299672" lon="-0.7384961131557303"><ele>1434.0</ele><time>2026-03-31T14:47:21Z</time></trkpt><trkpt lat="42.99080535020451" lon="-0.738567696337622"><ele>1432.1666666666667</ele><time>2026-03-31T14:47:22Z</time></trkpt><trkpt lat="42.990868276038704" lon="-0.7386324157462345"><ele>1430.3333333333333</ele><time>2026-03-31T14:47:23Z</time></trkpt><trkpt lat="42.99093361175203" lon="-0.738692354670936"><ele>1428.5</ele><time>2026-03-31T14:47:24Z</time></trkpt><trkpt lat="42.99100271054789" lon="-0.7387441861599585"><ele>1426.6666666666665</ele><time>2026-03-31T14:47:25Z</time></trkpt><trkpt lat="42.99107333129822" lon="-0.738783504506528"><ele>1424.8333333333333</ele><time>2026-03-31T14:47:26Z</time></trkpt><trkpt lat="42.99114546982393" lon="-0.738811922712037"><ele>1423.0</ele><time>2026-03-31T14:47:27Z</time></trkpt><trkpt lat="42.991286116488865" lon="-0.7388615801501723"><ele>1423.0</ele><time>2026-03-31T14:47:29Z</time></trkpt><trkpt lat="42.991348819348005" lon="-0.7388964415158847"><ele>1423.0</ele><time>2026-03-31T14:47:30Z</time></trkpt><trkpt lat="42.99141834784336" lon="-0.7389350048945693"><ele>1423.0</ele><time>2026-03-31T14:47:31Z</time></trkpt><trkpt lat="42.99148564710235" lon="-0.7389449374932717"><ele>1423.0</ele><time>2026-03-31T14:47:32Z</time></trkpt><trkpt lat="42.99154599436946" lon="-0.7389730380246375"><ele>1423.0</ele><time>2026-03-31T14:47:33Z</time></trkpt><trkpt lat="42.99161302196878" lon="-0.7390024845453443"><ele>1423.0</ele><time>2026-03-31T14:47:34Z</time></trkpt><trkpt lat="42.99167900623869" lon="-0.7390279103326928"><ele>1423.0</ele><time>2026-03-31T14:47:35Z</time></trkpt><trkpt lat="42.9917465452284" lon="-0.7390766491453472"><ele>1423.0</ele><time>2026-03-31T14:47:36Z</time></trkpt><trkpt lat="42.99181976004742" lon="-0.7391027794168644"><ele>1423.0</ele><time>2026-03-31T14:47:37Z</time></trkpt><trkpt lat="42.99189453906071" lon="-0.7391296881741659"><ele>1423.0</ele><time>2026-03-31T14:47:38Z</time></trkpt><trkpt lat="42.99196784546001" lon="-0.7391551357489794"><ele>1423.0</ele><time>2026-03-31T14:47:39Z</time></trkpt><trkpt lat="42.992044473899945" lon="-0.7391831272269981"><ele>1423.0</ele><time>2026-03-31T14:47:40Z</time></trkpt><trkpt lat="42.99212048054959" lon="-0.7392115066461149"><ele>1423.0</ele><time>2026-03-31T14:47:41Z</time></trkpt><trkpt lat="42.99219399484684" lon="-0.7392451660716265"><ele>1423.0</ele><time>2026-03-31T14:47:42Z</time></trkpt><trkpt lat="42.99226751019839" lon="-0.739286344164534"><ele>1423.0</ele><time>2026-03-31T14:47:43Z</time></trkpt><trkpt lat="42.992340570856854" lon="-0.7393264306189617"><ele>1423.0</ele><time>2026-03-31T14:47:44Z</time></trkpt><trkpt lat="42.99241318403899" lon="-0.7393570168862017"><ele>1423.0</ele><time>2026-03-31T14:47:45Z</time></trkpt><trkpt lat="42.99249116510596" lon="-0.7393825199566507"><ele>1423.0</ele><time>2026-03-31T14:47:46Z</time></trkpt><trkpt lat="42.99257295353713" lon="-0.7394007094166322"><ele>1423.0</ele><time>2026-03-31T14:47:47Z</time></trkpt><trkpt lat="42.99265408028492" lon="-0.7394177269929644"><ele>1419.8333333333333</ele><time>2026-03-31T14:47:48Z</time></trkpt><trkpt lat="42.992737291317546" lon="-0.7394432860486617"><ele>1416.6666666666665</ele><time>2026-03-31T14:47:49Z</time></trkpt><trkpt lat="42.99281860690197" lon="-0.7394744832137968"><ele>1413.5</ele><time>2026-03-31T14:47:50Z</time></trkpt><trkpt lat="42.99289998990594" lon="-0.7395065824675532"><ele>1410.3333333333333</ele><time>2026-03-31T14:47:51Z</time></trkpt><trkpt lat="42.99298236233427" lon="-0.7395393773851799"><ele>1407.1666666666667</ele><time>2026-03-31T14:47:52Z</time></trkpt><trkpt lat="42.993065110286395" lon="-0.7395731477581571"><ele>1404.0</ele><time>2026-03-31T14:47:53Z</time></trkpt><trkpt lat="42.99314704984907" lon="-0.739604522049765"><ele>1404.0</ele><time>2026-03-31T14:47:54Z</time></trkpt><trkpt lat="42.9932306653397" lon="-0.7396381932247988"><ele>1404.0</ele><time>2026-03-31T14:47:55Z</time></trkpt><trkpt lat="42.99331314119026" lon="-0.7396724809485267"><ele>1404.0</ele><time>2026-03-31T14:47:56Z</time></trkpt><trkpt lat="42.9933949246887" lon="-0.739706047069741"><ele>1404.0</ele><time>2026-03-31T14:47:57Z</time></trkpt><trkpt lat="42.99347638063572" lon="-0.739739532549723"><ele>1404.0</ele><time>2026-03-31T14:47:58Z</time></trkpt><trkpt lat="42.993557474483026" lon="-0.7397720668086509"><ele>1404.0</ele><time>2026-03-31T14:47:59Z</time></trkpt><trkpt lat="42.9936409405838" lon="-0.7398019468158379"><ele>1403.6</ele><time>2026-03-31T14:48:00Z</time></trkpt><trkpt lat="42.99372621400613" lon="-0.7398298005023175"><ele>1403.2</ele><time>2026-03-31T14:48:01Z</time></trkpt><trkpt lat="42.99382786292091" lon="-0.7398608667887275"><ele>1402.8</ele><time>2026-03-31T14:48:02Z</time></trkpt><trkpt lat="42.99393173859311" lon="-0.7398934824204602"><ele>1402.3999999999999</ele><time>2026-03-31T14:48:03Z</time></trkpt><trkpt lat="42.994041709803994" lon="-0.7399307642632541"><ele>1402.0</ele><time>2026-03-31T14:48:04Z</time></trkpt><trkpt lat="42.99415286161613" lon="-0.7399762238763757"><ele>1400.75</ele><time>2026-03-31T14:48:05Z</time></trkpt><trkpt lat="42.99426689695144" lon="-0.7400216546047048"><ele>1399.5</ele><time>2026-03-31T14:48:06Z</time></trkpt><trkpt lat="42.99438702076386" lon="-0.7400596018273095"><ele>1398.25</ele><time>2026-03-31T14:48:07Z</time></trkpt><trkpt lat="42.99450818416274" lon="-0.7400905113915962"><ele>1397.0</ele><time>2026-03-31T14:48:08Z</time></trkpt><trkpt lat="42.99463564075965" lon="-0.7401165464860815"><ele>1397.0</ele><time>2026-03-31T14:48:09Z</time></trkpt><trkpt lat="42.99476265079099" lon="-0.7401391832878729"><ele>1397.0</ele><time>2026-03-31T14:48:10Z</time></trkpt><trkpt lat="42.994891035643754" lon="-0.7401655815337079"><ele>1397.0</ele><time>2026-03-31T14:48:11Z</time></trkpt><trkpt lat="42.99501790214926" lon="-0.740188195149057"><ele>1397.0</ele><time>2026-03-31T14:48:12Z</time></trkpt><trkpt lat="42.99514513083833" lon="-0.7402036505085522"><ele>1393.25</ele><time>2026-03-31T14:48:13Z</time></trkpt><trkpt lat="42.995272947182265" lon="-0.7402171687338555"><ele>1389.5</ele><time>2026-03-31T14:48:14Z</time></trkpt><trkpt lat="42.99540856313414" lon="-0.7402226337243896"><ele>1385.75</ele><time>2026-03-31T14:48:15Z</time></trkpt><trkpt lat="42.995547525464396" lon="-0.7402248032130482"><ele>1382.0</ele><time>2026-03-31T14:48:16Z</time></trkpt><trkpt lat="42.99568752373808" lon="-0.7402282670480511"><ele>1382.0</ele><time>2026-03-31T14:48:17Z</time></trkpt><trkpt lat="42.99583049577747" lon="-0.7402327035920505"><ele>1382.0</ele><time>2026-03-31T14:48:18Z</time></trkpt><trkpt lat="42.99597818913492" lon="-0.7402358787562713"><ele>1382.0</ele><time>2026-03-31T14:48:19Z</time></trkpt><trkpt lat="42.996139556340964" lon="-0.7402389327409271"><ele>1381.75</ele><time>2026-03-31T14:48:20Z</time></trkpt><trkpt lat="42.996293124454766" lon="-0.7402408412668812"><ele>1381.5</ele><time>2026-03-31T14:48:21Z</time></trkpt><trkpt lat="42.996436375126514" lon="-0.7402469142396879"><ele>1381.25</ele><time>2026-03-31T14:48:22Z</time></trkpt><trkpt lat="42.9965684204174" lon="-0.7402556209168185"><ele>1381.0</ele><time>2026-03-31T14:48:23Z</time></trkpt><trkpt lat="42.99670157541129" lon="-0.740259850392568"><ele>1381.25</ele><time>2026-03-31T14:48:24Z</time></trkpt><trkpt lat="42.99684303272766" lon="-0.7402495782391156"><ele>1381.5</ele><time>2026-03-31T14:48:25Z</time></trkpt><trkpt lat="42.996983649791524" lon="-0.7402096568883639"><ele>1381.75</ele><time>2026-03-31T14:48:26Z</time></trkpt><trkpt lat="42.9971214977519" lon="-0.7401468456821558"><ele>1382.0</ele><time>2026-03-31T14:48:27Z</time></trkpt><trkpt lat="42.99725458926478" lon="-0.740059484218742"><ele>1382.0</ele><time>2026-03-31T14:48:28Z</time></trkpt><trkpt lat="42.99735806630947" lon="-0.7399330396459912"><ele>1382.0</ele><time>2026-03-31T14:48:29Z</time></trkpt><trkpt lat="42.99746187939742" lon="-0.7398037082835416"><ele>1382.0</ele><time>2026-03-31T14:48:30Z</time></trkpt><trkpt lat="42.997571848627075" lon="-0.7396807060389478"><ele>1382.0</ele><time>2026-03-31T14:48:31Z</time></trkpt><trkpt lat="42.99765923989307" lon="-0.7395242633221211"><ele>1380.25</ele><time>2026-03-31T14:48:32Z</time></trkpt><trkpt lat="42.99773838147152" lon="-0.7393584085822529"><ele>1378.5</ele><time>2026-03-31T14:48:33Z</time></trkpt><trkpt lat="42.997808924472295" lon="-0.7391820392909134"><ele>1376.75</ele><time>2026-03-31T14:48:34Z</time></trkpt><trkpt lat="42.99792721678955" lon="-0.7390522676423611"><ele>1375.0</ele><time>2026-03-31T14:48:35Z</time></trkpt><trkpt lat="42.998045635444804" lon="-0.7389155023417486"><ele>1375.0</ele><time>2026-03-31T14:48:36Z</time></trkpt><trkpt lat="42.998162412535464" lon="-0.7387620009757806"><ele>1375.0</ele><time>2026-03-31T14:48:37Z</time></trkpt><trkpt lat="42.9982650402594" lon="-0.738580026491253"><ele>1375.0</ele><time>2026-03-31T14:48:38Z</time></trkpt><trkpt lat="42.998381671122786" lon="-0.7384120851241496"><ele>1374.3333333333333</ele><time>2026-03-31T14:48:39Z</time></trkpt><trkpt lat="42.99850534895863" lon="-0.7382426899388458"><ele>1373.6666666666667</ele><time>2026-03-31T14:48:40Z</time></trkpt><trkpt lat="42.99863239422128" lon="-0.7380787926704776"><ele>1373.0</ele><time>2026-03-31T14:48:41Z</time></trkpt><trkpt lat="42.99876112674381" lon="-0.7379168702811759"><ele>1373.0</ele><time>2026-03-31T14:48:42Z</time></trkpt><trkpt lat="42.998895686555024" lon="-0.7377552166133143"><ele>1373.0</ele><time>2026-03-31T14:48:43Z</time></trkpt><trkpt lat="42.99904951048091" lon="-0.737623472206322"><ele>1373.0</ele><time>2026-03-31T14:48:44Z</time></trkpt><trkpt lat="42.999189503936606" lon="-0.7374724604302868"><ele>1375.3333333333335</ele><time>2026-03-31T14:48:45Z</time></trkpt><trkpt lat="42.99935063320231" lon="-0.7373778324040551"><ele>1377.6666666666667</ele><time>2026-03-31T14:48:46Z</time></trkpt><trkpt lat="42.999507426218095" lon="-0.7372734066420652"><ele>1380.0</ele><time>2026-03-31T14:48:47Z</time></trkpt><trkpt lat="42.99966297974918" lon="-0.7371733738438888"><ele>1380.0</ele><time>2026-03-31T14:48:48Z</time></trkpt><trkpt lat="42.99980795021996" lon="-0.7370686047423305"><ele>1380.0</ele><time>2026-03-31T14:48:49Z</time></trkpt><trkpt lat="42.99994475703341" lon="-0.7369672263594073"><ele>1380.0</ele><time>2026-03-31T14:48:50Z</time></trkpt><trkpt lat="43.0000674607891" lon="-0.7368773679999161"><ele>1386.75</ele><time>2026-03-31T14:48:51Z</time></trkpt><trkpt lat="43.00017767523194" lon="-0.7367778920871743"><ele>1393.5</ele><time>2026-03-31T14:48:52Z</time></trkpt><trkpt lat="43.000286567509214" lon="-0.7366674125116732"><ele>1400.25</ele><time>2026-03-31T14:48:53Z</time></trkpt><trkpt lat="43.00037859972853" lon="-0.7365275884795551"><ele>1407.0</ele><time>2026-03-31T14:48:54Z</time></trkpt><trkpt lat="43.00047954697202" lon="-0.7364013975070759"><ele>1407.0</ele><time>2026-03-31T14:48:55Z</time></trkpt><trkpt lat="43.0005804388341" lon="-0.7362894278028057"><ele>1407.0</ele><time>2026-03-31T14:48:56Z</time></trkpt><trkpt lat="43.00066707799953" lon="-0.7361697901471544"><ele>1407.0</ele><time>2026-03-31T14:48:57Z</time></trkpt><trkpt lat="43.00075337338081" lon="-0.7360584624171843"><ele>1407.0</ele><time>2026-03-31T14:48:58Z</time></trkpt><trkpt lat="43.00083714395226" lon="-0.7359484365699636"><ele>1404.75</ele><time>2026-03-31T14:48:59Z</time></trkpt><trkpt lat="43.000911857625766" lon="-0.7358351930631615"><ele>1402.5</ele><time>2026-03-31T14:49:00Z</time></trkpt><trkpt lat="43.000969080610346" lon="-0.7357104049087069"><ele>1400.25</ele><time>2026-03-31T14:49:01Z</time></trkpt><trkpt lat="43.000984808037416" lon="-0.7355637298239409"><ele>1398.0</ele><time>2026-03-31T14:49:02Z</time></trkpt><trkpt lat="43.001019217932964" lon="-0.7353996054389336"><ele>1400.6666666666667</ele><time>2026-03-31T14:49:03Z</time></trkpt><trkpt lat="43.00105682162183" lon="-0.7352131316120283"><ele>1403.3333333333335</ele><time>2026-03-31T14:49:04Z</time></trkpt><trkpt lat="43.00109974618688" lon="-0.7350080218465356"><ele>1406.0</ele><time>2026-03-31T14:49:05Z</time></trkpt><trkpt lat="43.001166264310775" lon="-0.7348060448592966"><ele>1406.0</ele><time>2026-03-31T14:49:06Z</time></trkpt><trkpt lat="43.00121625600087" lon="-0.7345968308897567"><ele>1406.0</ele><time>2026-03-31T14:49:07Z</time></trkpt><trkpt lat="43.00128757557601" lon="-0.7344024402440422"><ele>1406.0</ele><time>2026-03-31T14:49:08Z</time></trkpt><trkpt lat="43.00137261664662" lon="-0.7342147965277934"><ele>1408.6666666666667</ele><time>2026-03-31T14:49:09Z</time></trkpt><trkpt lat="43.001459243225824" lon="-0.7340330515161017"><ele>1411.3333333333333</ele><time>2026-03-31T14:49:10Z</time></trkpt><trkpt lat="43.00154084460533" lon="-0.733847804888175"><ele>1414.0</ele><time>2026-03-31T14:49:11Z</time></trkpt><trkpt lat="43.00160742589299" lon="-0.7336674594481106"><ele>1414.5</ele><time>2026-03-31T14:49:12Z</time></trkpt><trkpt lat="43.00164420982185" lon="-0.7334778656030024"><ele>1415.0</ele><time>2026-03-31T14:49:13Z</time></trkpt><trkpt lat="43.001720097366565" lon="-0.7333236558778433"><ele>1415.5</ele><time>2026-03-31T14:49:14Z</time></trkpt><trkpt lat="43.00179093842316" lon="-0.7331690516113082"><ele>1416.0</ele><time>2026-03-31T14:49:15Z</time></trkpt><trkpt lat="43.001885940513716" lon="-0.7330470210110615"><ele>1409.75</ele><time>2026-03-31T14:49:16Z</time></trkpt><trkpt lat="43.00198942470336" lon="-0.7329248070684543"><ele>1403.5</ele><time>2026-03-31T14:49:17Z</time></trkpt><trkpt lat="43.00209829824203" lon="-0.7327920219027018"><ele>1397.25</ele><time>2026-03-31T14:49:18Z</time></trkpt><trkpt lat="43.00221007809427" lon="-0.7326498190210127"><ele>1391.0</ele><time>2026-03-31T14:49:19Z</time></trkpt><trkpt lat="43.002326083769205" lon="-0.7325036579949359"><ele>1391.0</ele><time>2026-03-31T14:49:20Z</time></trkpt><trkpt lat="43.00244732657471" lon="-0.7323567233357707"><ele>1391.0</ele><time>2026-03-31T14:49:21Z</time></trkpt><trkpt lat="43.00257483338774" lon="-0.7322116741151696"><ele>1391.0</ele><time>2026-03-31T14:49:22Z</time></trkpt><trkpt lat="43.00270462320963" lon="-0.7320672624299281"><ele>1383.0</ele><time>2026-03-31T14:49:23Z</time></trkpt><trkpt lat="43.00282968814157" lon="-0.7319303678471868"><ele>1375.0</ele><time>2026-03-31T14:49:24Z</time></trkpt><trkpt lat="43.002952042603795" lon="-0.731801104672478"><ele>1367.0</ele><time>2026-03-31T14:49:25Z</time></trkpt><trkpt lat="43.00307628531744" lon="-0.7316845018694625"><ele>1367.0</ele><time>2026-03-31T14:49:26Z</time></trkpt><trkpt lat="43.003204418438656" lon="-0.731589843095563"><ele>1367.0</ele><time>2026-03-31T14:49:27Z</time></trkpt><trkpt lat="43.00333656733049" lon="-0.731507650477841"><ele>1367.0</ele><time>2026-03-31T14:49:28Z</time></trkpt><trkpt lat="43.003475221554424" lon="-0.7314345509385194"><ele>1367.0</ele><time>2026-03-31T14:49:29Z</time></trkpt><trkpt lat="43.00361928222984" lon="-0.7313765660442928"><ele>1363.5</ele><time>2026-03-31T14:49:30Z</time></trkpt><trkpt lat="43.00376575967118" lon="-0.7313359368409056"><ele>1360.0</ele><time>2026-03-31T14:49:31Z</time></trkpt><trkpt lat="43.00390819151625" lon="-0.7313029925367702"><ele>1356.5</ele><time>2026-03-31T14:49:32Z</time></trkpt><trkpt lat="43.0040500361122" lon="-0.7312709185906459"><ele>1353.0</ele><time>2026-03-31T14:49:33Z</time></trkpt><trkpt lat="43.004192977011876" lon="-0.7312487724912116"><ele>1349.5</ele><time>2026-03-31T14:49:34Z</time></trkpt><trkpt lat="43.004337605248615" lon="-0.7312499030154711"><ele>1346.0</ele><time>2026-03-31T14:49:35Z</time></trkpt><trkpt lat="43.0044848507763" lon="-0.7312674962458354"><ele>1342.5</ele><time>2026-03-31T14:49:36Z</time></trkpt><trkpt lat="43.00463527237372" lon="-0.7312845792646191"><ele>1339.0</ele><time>2026-03-31T14:49:37Z</time></trkpt><trkpt lat="43.00479057224136" lon="-0.7312804416975929"><ele>1339.0</ele><time>2026-03-31T14:49:38Z</time></trkpt><trkpt lat="43.00494668127682" lon="-0.7312662311607675"><ele>1339.0</ele><time>2026-03-31T14:49:39Z</time></trkpt><trkpt lat="43.00509749283733" lon="-0.7312522032172406"><ele>1339.0</ele><time>2026-03-31T14:49:40Z</time></trkpt><trkpt lat="43.00522803507244" lon="-0.7312401364296389"><ele>1339.0</ele><time>2026-03-31T14:49:41Z</time></trkpt><trkpt lat="43.005336755482254" lon="-0.731217017803405"><ele>1337.75</ele><time>2026-03-31T14:49:42Z</time></trkpt><trkpt lat="43.00543537757325" lon="-0.7311411980744742"><ele>1336.5</ele><time>2026-03-31T14:49:43Z</time></trkpt><trkpt lat="43.005532400193054" lon="-0.7310527159940058"><ele>1335.25</ele><time>2026-03-31T14:49:44Z</time></trkpt><trkpt lat="43.00562337011577" lon="-0.7309420363826867"><ele>1334.0</ele><time>2026-03-31T14:49:45Z</time></trkpt><trkpt lat="43.00572386352096" lon="-0.7308177680832625"><ele>1334.5</ele><time>2026-03-31T14:49:46Z</time></trkpt><trkpt lat="43.005834542598805" lon="-0.7306985858307232"><ele>1335.0</ele><time>2026-03-31T14:49:47Z</time></trkpt><trkpt lat="43.00592951964851" lon="-0.7305671927137334"><ele>1335.5</ele><time>2026-03-31T14:49:48Z</time></trkpt><trkpt lat="43.0060240867526" lon="-0.7304495149772463"><ele>1336.0</ele><time>2026-03-31T14:49:49Z</time></trkpt><trkpt lat="43.00610846654578" lon="-0.7303578169848514"><ele>1336.0</ele><time>2026-03-31T14:49:50Z</time></trkpt><trkpt lat="43.00619905316012" lon="-0.7302881805187336"><ele>1336.0</ele><time>2026-03-31T14:49:51Z</time></trkpt><trkpt lat="43.00629419306743" lon="-0.7302414710941536"><ele>1336.0</ele><time>2026-03-31T14:49:52Z</time></trkpt><trkpt lat="43.0063965907045" lon="-0.7302284636737584"><ele>1336.0</ele><time>2026-03-31T14:49:53Z</time></trkpt><trkpt lat="43.0064989309011" lon="-0.730256698853297"><ele>1336.0</ele><time>2026-03-31T14:49:54Z</time></trkpt><trkpt lat="43.00660182934799" lon="-0.7303012881950574"><ele>1330.25</ele><time>2026-03-31T14:49:55Z</time></trkpt><trkpt lat="43.006718739408335" lon="-0.730324422277378"><ele>1324.5</ele><time>2026-03-31T14:49:56Z</time></trkpt><trkpt lat="43.00686500807273" lon="-0.7303005418600698"><ele>1318.75</ele><time>2026-03-31T14:49:57Z</time></trkpt><trkpt lat="43.007016418124685" lon="-0.7302974749858474"><ele>1313.0</ele><time>2026-03-31T14:49:58Z</time></trkpt><trkpt lat="43.00715353199523" lon="-0.7302573776195489"><ele>1316.4</ele><time>2026-03-31T14:49:59Z</time></trkpt><trkpt lat="43.007282375356574" lon="-0.7302046938256521"><ele>1319.8000000000002</ele><time>2026-03-31T14:50:00Z</time></trkpt><trkpt lat="43.00738976860224" lon="-0.7301511902420503"><ele>1323.2</ele><time>2026-03-31T14:50:01Z</time></trkpt><trkpt lat="43.007476847774136" lon="-0.7301106975061887"><ele>1326.6</ele><time>2026-03-31T14:50:02Z</time></trkpt><trkpt lat="43.007560768502074" lon="-0.7301049950986785"><ele>1330.0</ele><time>2026-03-31T14:50:03Z</time></trkpt><trkpt lat="43.00764330120296" lon="-0.7301362039300593"><ele>1330.0</ele><time>2026-03-31T14:50:04Z</time></trkpt><trkpt lat="43.00771514239647" lon="-0.7302090892559135"><ele>1330.0</ele><time>2026-03-31T14:50:05Z</time></trkpt><trkpt lat="43.0077675742794" lon="-0.7303224428618386"><ele>1330.0</ele><time>2026-03-31T14:50:06Z</time></trkpt><trkpt lat="43.00781021332234" lon="-0.7304585942382597"><ele>1330.0</ele><time>2026-03-31T14:50:07Z</time></trkpt><trkpt lat="43.00786029577825" lon="-0.7306066053608417"><ele>1330.0</ele><time>2026-03-31T14:50:08Z</time></trkpt><trkpt lat="43.007932863248556" lon="-0.7307510701157159"><ele>1322.75</ele><time>2026-03-31T14:50:09Z</time></trkpt><trkpt lat="43.00803657263495" lon="-0.7308741563530738"><ele>1315.5</ele><time>2026-03-31T14:50:10Z</time></trkpt><trkpt lat="43.008154313454206" lon="-0.7309688095900929"><ele>1308.25</ele><time>2026-03-31T14:50:11Z</time></trkpt><trkpt lat="43.008290202632246" lon="-0.731017415905366"><ele>1301.0</ele><time>2026-03-31T14:50:12Z</time></trkpt><trkpt lat="43.00840264670319" lon="-0.7311069939683464"><ele>1296.75</ele><time>2026-03-31T14:50:13Z</time></trkpt><trkpt lat="43.00850837552926" lon="-0.731165794900479"><ele>1292.5</ele><time>2026-03-31T14:50:14Z</time></trkpt><trkpt lat="43.00861544198479" lon="-0.7311956263637637"><ele>1288.25</ele><time>2026-03-31T14:50:15Z</time></trkpt><trkpt lat="43.00872865914687" lon="-0.7311266448139698"><ele>1284.0</ele><time>2026-03-31T14:50:16Z</time></trkpt><trkpt lat="43.00884940154047" lon="-0.7310952075781757"><ele>1284.0</ele><time>2026-03-31T14:50:17Z</time></trkpt><trkpt lat="43.008985899933506" lon="-0.7310806407742766"><ele>1284.0</ele><time>2026-03-31T14:50:18Z</time></trkpt><trkpt lat="43.00912492273243" lon="-0.7310462219059021"><ele>1284.0</ele><time>2026-03-31T14:50:19Z</time></trkpt><trkpt lat="43.00925945530384" lon="-0.7310304272019595"><ele>1284.0</ele><time>2026-03-31T14:50:20Z</time></trkpt><trkpt lat="43.009387772360995" lon="-0.7310452380791326"><ele>1283.25</ele><time>2026-03-31T14:50:21Z</time></trkpt><trkpt lat="43.009514573774666" lon="-0.7310896373477048"><ele>1282.5</ele><time>2026-03-31T14:50:22Z</time></trkpt><trkpt lat="43.009636983020954" lon="-0.7311615341223517"><ele>1281.75</ele><time>2026-03-31T14:50:23Z</time></trkpt><trkpt lat="43.00976033077985" lon="-0.7312480571573889"><ele>1281.0</ele><time>2026-03-31T14:50:24Z</time></trkpt><trkpt lat="43.0098992506892" lon="-0.7313215905042411"><ele>1281.6666666666667</ele><time>2026-03-31T14:50:25Z</time></trkpt><trkpt lat="43.010046629699815" lon="-0.7313961669560918"><ele>1282.3333333333335</ele><time>2026-03-31T14:50:26Z</time></trkpt><trkpt lat="43.01018856170615" lon="-0.7315042176867758"><ele>1283.0</ele><time>2026-03-31T14:50:27Z</time></trkpt><trkpt lat="43.01032022054008" lon="-0.7316337916787471"><ele>1283.0</ele><time>2026-03-31T14:50:28Z</time></trkpt><trkpt lat="43.010450426255055" lon="-0.7317608407653424"><ele>1283.0</ele><time>2026-03-31T14:50:29Z</time></trkpt><trkpt lat="43.01058840169146" lon="-0.7318607735559944"><ele>1283.0</ele><time>2026-03-31T14:50:30Z</time></trkpt><trkpt lat="43.010729674772165" lon="-0.7319494575462555"><ele>1278.75</ele><time>2026-03-31T14:50:31Z</time></trkpt><trkpt lat="43.01085960263718" lon="-0.7320330422406658"><ele>1274.5</ele><time>2026-03-31T14:50:32Z</time></trkpt><trkpt lat="43.01096862504335" lon="-0.7321072858279143"><ele>1270.25</ele><time>2026-03-31T14:50:33Z</time></trkpt><trkpt lat="43.011064653208265" lon="-0.7321784139463209"><ele>1266.0</ele><time>2026-03-31T14:50:34Z</time></trkpt><trkpt lat="43.011151175987315" lon="-0.732252996092485"><ele>1266.0</ele><time>2026-03-31T14:50:35Z</time></trkpt><trkpt lat="43.01121877160338" lon="-0.7323401167958221"><ele>1266.0</ele><time>2026-03-31T14:50:36Z</time></trkpt><trkpt lat="43.01126769544312" lon="-0.7324395194277947"><ele>1266.0</ele><time>2026-03-31T14:50:37Z</time></trkpt><trkpt lat="43.01129071646785" lon="-0.7325415332476318"><ele>1266.0</ele><time>2026-03-31T14:50:38Z</time></trkpt><trkpt lat="43.0112818144786" lon="-0.7326473911579039"><ele>1266.0</ele><time>2026-03-31T14:50:39Z</time></trkpt><trkpt lat="43.011230491921026" lon="-0.7327284673646314"><ele>1266.0</ele><time>2026-03-31T14:50:40Z</time></trkpt><trkpt lat="43.01114867903235" lon="-0.7327545149240837"><ele>1266.0</ele><time>2026-03-31T14:50:41Z</time></trkpt><trkpt lat="43.01106657942568" lon="-0.7327198190530229"><ele>1266.0</ele><time>2026-03-31T14:50:42Z</time></trkpt><trkpt lat="43.0109770130173" lon="-0.7326556320497613"><ele>1266.0</ele><time>2026-03-31T14:50:43Z</time></trkpt><trkpt lat="43.01085318152614" lon="-0.7325792187611379"><ele>1266.0</ele><time>2026-03-31T14:50:44Z</time></trkpt><trkpt lat="43.01070839347703" lon="-0.7325127570343452"><ele>1265.0</ele><time>2026-03-31T14:50:45Z</time></trkpt><trkpt lat="43.0105630430978" lon="-0.7324631942944607"><ele>1264.0</ele><time>2026-03-31T14:50:46Z</time></trkpt><trkpt lat="43.010413960757624" lon="-0.7324297685445"><ele>1263.0</ele><time>2026-03-31T14:50:47Z</time></trkpt><trkpt lat="43.01026769765947" lon="-0.7324175522399717"><ele>1262.0</ele><time>2026-03-31T14:50:48Z</time></trkpt><trkpt lat="43.010126512215756" lon="-0.7324260772270107"><ele>1261.0</ele><time>2026-03-31T14:50:49Z</time></trkpt><trkpt lat="43.00999166645154" lon="-0.7324699228636742"><ele>1260.0</ele><time>2026-03-31T14:50:50Z</time></trkpt><trkpt lat="43.009863286026075" lon="-0.7325374590331362"><ele>1259.0</ele><time>2026-03-31T14:50:51Z</time></trkpt><trkpt lat="43.009753528758225" lon="-0.7326391263780355"><ele>1258.0</ele><time>2026-03-31T14:50:52Z</time></trkpt><trkpt lat="43.009657491928" lon="-0.7327643633885851"><ele>1254.0</ele><time>2026-03-31T14:50:53Z</time></trkpt><trkpt lat="43.00957511327171" lon="-0.7328983854500052"><ele>1250.0</ele><time>2026-03-31T14:50:54Z</time></trkpt><trkpt lat="43.00947256555737" lon="-0.7330063269293987"><ele>1246.0</ele><time>2026-03-31T14:50:55Z</time></trkpt><trkpt lat="43.00935542065418" lon="-0.7330765385665942"><ele>1242.0</ele><time>2026-03-31T14:50:56Z</time></trkpt><trkpt lat="43.009225517058965" lon="-0.7330988959263847"><ele>1240.75</ele><time>2026-03-31T14:50:57Z</time></trkpt><trkpt lat="43.00909590235384" lon="-0.7330823871442654"><ele>1239.5</ele><time>2026-03-31T14:50:58Z</time></trkpt><trkpt lat="43.0089464993248" lon="-0.7330581025553219"><ele>1238.25</ele><time>2026-03-31T14:50:59Z</time></trkpt><trkpt lat="43.00878764352169" lon="-0.733068856876698"><ele>1237.0</ele><time>2026-03-31T14:51:00Z</time></trkpt><trkpt lat="43.00864699116028" lon="-0.7331118692898371"><ele>1237.0</ele><time>2026-03-31T14:51:01Z</time></trkpt><trkpt lat="43.0085250518683" lon="-0.7331534659067525"><ele>1237.0</ele><time>2026-03-31T14:51:02Z</time></trkpt><trkpt lat="43.00840853590147" lon="-0.7331630612421066"><ele>1237.0</ele><time>2026-03-31T14:51:03Z</time></trkpt><trkpt lat="43.008295366537375" lon="-0.7331322797477614"><ele>1237.0</ele><time>2026-03-31T14:51:04Z</time></trkpt><trkpt lat="43.00820769530233" lon="-0.733066230622945"><ele>1235.0</ele><time>2026-03-31T14:51:05Z</time></trkpt><trkpt lat="43.008136946820066" lon="-0.7330160319122102"><ele>1233.0</ele><time>2026-03-31T14:51:06Z</time></trkpt><trkpt lat="43.008024745472824" lon="-0.7330837067914988"><ele>1231.0</ele><time>2026-03-31T14:51:08Z</time></trkpt><trkpt lat="43.008006124395145" lon="-0.7331808528184988"><ele>1229.0</ele><time>2026-03-31T14:51:09Z</time></trkpt><trkpt lat="43.00802802081447" lon="-0.7332950748685884"><ele>1227.0</ele><time>2026-03-31T14:51:10Z</time></trkpt><trkpt lat="43.00807705652024" lon="-0.733410667060755"><ele>1227.0</ele><time>2026-03-31T14:51:11Z</time></trkpt><trkpt lat="43.008146240263756" lon="-0.7335139680032953"><ele>1227.0</ele><time>2026-03-31T14:51:12Z</time></trkpt><trkpt lat="43.00823684601747" lon="-0.7335929649612607"><ele>1227.0</ele><time>2026-03-31T14:51:13Z</time></trkpt><trkpt lat="43.008340663518226" lon="-0.7335899108645585"><ele>1227.0</ele><time>2026-03-31T14:51:14Z</time></trkpt><trkpt lat="43.00847719605883" lon="-0.7336014332275058"><ele>1222.6666666666667</ele><time>2026-03-31T14:51:15Z</time></trkpt><trkpt lat="43.00862277401437" lon="-0.7336655224747854"><ele>1218.3333333333335</ele><time>2026-03-31T14:51:16Z</time></trkpt><trkpt lat="43.00878450876109" lon="-0.7337252040507666"><ele>1214.0</ele><time>2026-03-31T14:51:17Z</time></trkpt><trkpt lat="43.00891643852172" lon="-0.733796589456457"><ele>1214.0</ele><time>2026-03-31T14:51:18Z</time></trkpt><trkpt lat="43.009030573388195" lon="-0.7338544765738658"><ele>1214.0</ele><time>2026-03-31T14:51:19Z</time></trkpt><trkpt lat="43.00912951022285" lon="-0.7339076842720539"><ele>1214.0</ele><time>2026-03-31T14:51:20Z</time></trkpt><trkpt lat="43.009205018582264" lon="-0.7339721572686886"><ele>1214.0</ele><time>2026-03-31T14:51:21Z</time></trkpt><trkpt lat="43.00924510538779" lon="-0.7340538064484011"><ele>1214.0</ele><time>2026-03-31T14:51:22Z</time></trkpt><trkpt lat="43.00925293034292" lon="-0.734156176124306"><ele>1214.0</ele><time>2026-03-31T14:51:23Z</time></trkpt><trkpt lat="43.00922221512686" lon="-0.7342534170042099"><ele>1214.0</ele><time>2026-03-31T14:51:24Z</time></trkpt><trkpt lat="43.00916689437684" lon="-0.7343225080825867"><ele>1214.0</ele><time>2026-03-31T14:51:25Z</time></trkpt><trkpt lat="43.009087508353566" lon="-0.7343489694429448"><ele>1214.0</ele><time>2026-03-31T14:51:26Z</time></trkpt><trkpt lat="43.00899375885029" lon="-0.734330180298945"><ele>1214.0</ele><time>2026-03-31T14:51:27Z</time></trkpt><trkpt lat="43.00889901689305" lon="-0.7343089828553107"><ele>1214.0</ele><time>2026-03-31T14:51:28Z</time></trkpt><trkpt lat="43.00878416749486" lon="-0.7342868270382145"><ele>1214.0</ele><time>2026-03-31T14:51:29Z</time></trkpt><trkpt lat="43.00865818625182" lon="-0.7342710170195493"><ele>1214.0</ele><time>2026-03-31T14:51:30Z</time></trkpt><trkpt lat="43.008547339380456" lon="-0.7342563344859174"><ele>1214.0</ele><time>2026-03-31T14:51:31Z</time></trkpt><trkpt lat="43.008454438840786" lon="-0.7342437984842775"><ele>1214.0</ele><time>2026-03-31T14:51:32Z</time></trkpt><trkpt lat="43.00836740902355" lon="-0.7342271989567465"><ele>1214.0</ele><time>2026-03-31T14:51:33Z</time></trkpt><trkpt lat="43.00828038689853" lon="-0.7342294832827893"><ele>1213.5</ele><time>2026-03-31T14:51:34Z</time></trkpt><trkpt lat="43.00821056648399" lon="-0.7342602253932068"><ele>1213.0</ele><time>2026-03-31T14:51:35Z</time></trkpt><trkpt lat="43.00816582670452" lon="-0.7343214455818559"><ele>1212.5</ele><time>2026-03-31T14:51:36Z</time></trkpt><trkpt lat="43.008183381118336" lon="-0.7344845330210459"><ele>1212.0</ele><time>2026-03-31T14:51:38Z</time></trkpt><trkpt lat="43.00824373118968" lon="-0.7345405655020663"><ele>1211.5</ele><time>2026-03-31T14:51:39Z</time></trkpt><trkpt lat="43.008328955979174" lon="-0.7345732144982278"><ele>1211.0</ele><time>2026-03-31T14:51:40Z</time></trkpt><trkpt lat="43.00842604812959" lon="-0.7346047045869558"><ele>1206.0</ele><time>2026-03-31T14:51:41Z</time></trkpt><trkpt lat="43.00854348466288" lon="-0.7346772591013861"><ele>1201.0</ele><time>2026-03-31T14:51:42Z</time></trkpt><trkpt lat="43.00864933613947" lon="-0.7347800191534829"><ele>1196.0</ele><time>2026-03-31T14:51:43Z</time></trkpt><trkpt lat="43.008759996800855" lon="-0.734892351138631"><ele>1191.0</ele><time>2026-03-31T14:51:44Z</time></trkpt><trkpt lat="43.00888010315668" lon="-0.7349886901237457"><ele>1191.0</ele><time>2026-03-31T14:51:45Z</time></trkpt><trkpt lat="43.00900539006285" lon="-0.7350601316177775"><ele>1191.0</ele><time>2026-03-31T14:51:46Z</time></trkpt><trkpt lat="43.00913796684771" lon="-0.7351048785065665"><ele>1191.0</ele><time>2026-03-31T14:51:47Z</time></trkpt><trkpt lat="43.00927442507184" lon="-0.7351146908651953"><ele>1191.0</ele><time>2026-03-31T14:51:48Z</time></trkpt><trkpt lat="43.00940994200554" lon="-0.7350893709627083"><ele>1191.5</ele><time>2026-03-31T14:51:49Z</time></trkpt><trkpt lat="43.009538961824546" lon="-0.7350400261248988"><ele>1192.0</ele><time>2026-03-31T14:51:50Z</time></trkpt><trkpt lat="43.00966375024558" lon="-0.7349836283239901"><ele>1192.5</ele><time>2026-03-31T14:51:51Z</time></trkpt><trkpt lat="43.00977945696506" lon="-0.7349336857612798"><ele>1193.0</ele><time>2026-03-31T14:51:52Z</time></trkpt><trkpt lat="43.009889959619834" lon="-0.7348962564507489"><ele>1191.8</ele><time>2026-03-31T14:51:53Z</time></trkpt><trkpt lat="43.00999373047954" lon="-0.7348830577464988"><ele>1190.6</ele><time>2026-03-31T14:51:54Z</time></trkpt><trkpt lat="43.010091147221644" lon="-0.7349060234659469"><ele>1189.4</ele><time>2026-03-31T14:51:55Z</time></trkpt><trkpt lat="43.01017433884268" lon="-0.7349726992539236"><ele>1188.2</ele><time>2026-03-31T14:51:56Z</time></trkpt><trkpt lat="43.01023467814165" lon="-0.7350739170308739"><ele>1187.0</ele><time>2026-03-31T14:51:57Z</time></trkpt><trkpt lat="43.01026327851313" lon="-0.7351902230479603"><ele>1182.6</ele><time>2026-03-31T14:51:58Z</time></trkpt><trkpt lat="43.01026826741951" lon="-0.7353269024540002"><ele>1178.2</ele><time>2026-03-31T14:51:59Z</time></trkpt><trkpt lat="43.01025475478565" lon="-0.7354778229844363"><ele>1173.8</ele><time>2026-03-31T14:52:00Z</time></trkpt><trkpt lat="43.010229000405424" lon="-0.7356226178488803"><ele>1169.4</ele><time>2026-03-31T14:52:01Z</time></trkpt><trkpt lat="43.0102124059394" lon="-0.7357622338898443"><ele>1165.0</ele><time>2026-03-31T14:52:02Z</time></trkpt><trkpt lat="43.01022837230133" lon="-0.735903841449841"><ele>1165.0</ele><time>2026-03-31T14:52:03Z</time></trkpt><trkpt lat="43.01026457030799" lon="-0.7360341171588705"><ele>1165.0</ele><time>2026-03-31T14:52:04Z</time></trkpt><trkpt lat="43.01034059481766" lon="-0.73612221128575"><ele>1165.0</ele><time>2026-03-31T14:52:05Z</time></trkpt><trkpt lat="43.01042691410422" lon="-0.7361826474662047"><ele>1165.0</ele><time>2026-03-31T14:52:06Z</time></trkpt><trkpt lat="43.01051308853178" lon="-0.7362263751456195"><ele>1165.0</ele><time>2026-03-31T14:52:07Z</time></trkpt><trkpt lat="43.01060280680988" lon="-0.7362530333854062"><ele>1160.8333333333333</ele><time>2026-03-31T14:52:08Z</time></trkpt><trkpt lat="43.01068313693804" lon="-0.7362915112530216"><ele>1156.6666666666665</ele><time>2026-03-31T14:52:09Z</time></trkpt><trkpt lat="43.010738765041864" lon="-0.7363670209215254"><ele>1152.5</ele><time>2026-03-31T14:52:10Z</time></trkpt><trkpt lat="43.01076428697398" lon="-0.7364662251411369"><ele>1148.3333333333333</ele><time>2026-03-31T14:52:11Z</time></trkpt><trkpt lat="43.010744607334026" lon="-0.7365682327796595"><ele>1144.1666666666667</ele><time>2026-03-31T14:52:12Z</time></trkpt><trkpt lat="43.010686478365415" lon="-0.7366396595945389"><ele>1140.0</ele><time>2026-03-31T14:52:13Z</time></trkpt><trkpt lat="43.01061375980536" lon="-0.7366966286355711"><ele>1140.0</ele><time>2026-03-31T14:52:14Z</time></trkpt><trkpt lat="43.010514844119264" lon="-0.736646333431899"><ele>1140.0</ele><time>2026-03-31T14:52:15Z</time></trkpt><trkpt lat="43.0104352768021" lon="-0.7365791273961483"><ele>1140.0</ele><time>2026-03-31T14:52:16Z</time></trkpt><trkpt lat="43.010347094201805" lon="-0.7364910385612007"><ele>1140.0</ele><time>2026-03-31T14:52:17Z</time></trkpt><trkpt lat="43.01024158121549" lon="-0.7364085793805141"><ele>1140.0</ele><time>2026-03-31T14:52:18Z</time></trkpt><trkpt lat="43.01012002504092" lon="-0.7363376239244835"><ele>1140.0</ele><time>2026-03-31T14:52:19Z</time></trkpt><trkpt lat="43.01000144486514" lon="-0.7362803801235175"><ele>1140.0</ele><time>2026-03-31T14:52:20Z</time></trkpt><trkpt lat="43.009883468510864" lon="-0.736235091841828"><ele>1140.0</ele><time>2026-03-31T14:52:21Z</time></trkpt><trkpt lat="43.009759913982435" lon="-0.7362168363626226"><ele>1140.0</ele><time>2026-03-31T14:52:22Z</time></trkpt><trkpt lat="43.00963261055102" lon="-0.736237539671158"><ele>1139.75</ele><time>2026-03-31T14:52:23Z</time></trkpt><trkpt lat="43.00949847865982" lon="-0.736288034105064"><ele>1139.5</ele><time>2026-03-31T14:52:24Z</time></trkpt><trkpt lat="43.0093641496209" lon="-0.7363699368317765"><ele>1139.25</ele><time>2026-03-31T14:52:25Z</time></trkpt><trkpt lat="43.00922458360777" lon="-0.7364551060160595"><ele>1139.0</ele><time>2026-03-31T14:52:26Z</time></trkpt><trkpt lat="43.009078521004604" lon="-0.736517951993927"><ele>1141.5</ele><time>2026-03-31T14:52:27Z</time></trkpt><trkpt lat="43.00893612119525" lon="-0.7365723949493815"><ele>1144.0</ele><time>2026-03-31T14:52:28Z</time></trkpt><trkpt lat="43.008812741589786" lon="-0.7366553211577761"><ele>1146.5</ele><time>2026-03-31T14:52:29Z</time></trkpt><trkpt lat="43.00871657091303" lon="-0.736782092144696"><ele>1149.0</ele><time>2026-03-31T14:52:30Z</time></trkpt><trkpt lat="43.00865055963912" lon="-0.7369317430428713"><ele>1143.75</ele><time>2026-03-31T14:52:31Z</time></trkpt><trkpt lat="43.00861902784038" lon="-0.7370946492132341"><ele>1138.5</ele><time>2026-03-31T14:52:32Z</time></trkpt><trkpt lat="43.00860524427201" lon="-0.7372559812153658"><ele>1133.25</ele><time>2026-03-31T14:52:33Z</time></trkpt><trkpt lat="43.00857680212746" lon="-0.7374149533584206"><ele>1128.0</ele><time>2026-03-31T14:52:34Z</time></trkpt><trkpt lat="43.00851936851791" lon="-0.737572709430398"><ele>1123.0</ele><time>2026-03-31T14:52:35Z</time></trkpt><trkpt lat="43.008454913139815" lon="-0.737718780559347"><ele>1118.0</ele><time>2026-03-31T14:52:36Z</time></trkpt><trkpt lat="43.008377430380065" lon="-0.7378492395806829"><ele>1113.0</ele><time>2026-03-31T14:52:37Z</time></trkpt><trkpt lat="43.008297338482585" lon="-0.737945570764126"><ele>1108.0</ele><time>2026-03-31T14:52:38Z</time></trkpt><trkpt lat="43.00819569227773" lon="-0.7379960987349363"><ele>1105.0</ele><time>2026-03-31T14:52:39Z</time></trkpt><trkpt lat="43.008078367256886" lon="-0.7379924618590784"><ele>1102.0</ele><time>2026-03-31T14:52:40Z</time></trkpt><trkpt lat="43.00796331791597" lon="-0.7379544593613585"><ele>1099.0</ele><time>2026-03-31T14:52:41Z</time></trkpt><trkpt lat="43.007844301871" lon="-0.7378817266381618"><ele>1096.0</ele><time>2026-03-31T14:52:42Z</time></trkpt><trkpt lat="43.00772136001121" lon="-0.7377843926316177"><ele>1100.75</ele><time>2026-03-31T14:52:43Z</time></trkpt><trkpt lat="43.00759546114893" lon="-0.7376790450638648"><ele>1105.5</ele><time>2026-03-31T14:52:44Z</time></trkpt><trkpt lat="43.0074671888428" lon="-0.7375753304066445"><ele>1110.25</ele><time>2026-03-31T14:52:45Z</time></trkpt><trkpt lat="43.007336527820186" lon="-0.737487597533457"><ele>1115.0</ele><time>2026-03-31T14:52:46Z</time></trkpt><trkpt lat="43.00720160975142" lon="-0.737422574699348"><ele>1115.0</ele><time>2026-03-31T14:52:47Z</time></trkpt><trkpt lat="43.007065388151574" lon="-0.7373741748475463"><ele>1115.0</ele><time>2026-03-31T14:52:48Z</time></trkpt><trkpt lat="43.00694393143284" lon="-0.737318010773223"><ele>1115.0</ele><time>2026-03-31T14:52:49Z</time></trkpt><trkpt lat="43.00683469067074" lon="-0.7372435341288851"><ele>1115.0</ele><time>2026-03-31T14:52:50Z</time></trkpt><trkpt lat="43.006741774135946" lon="-0.7371603216410739"><ele>1115.0</ele><time>2026-03-31T14:52:51Z</time></trkpt><trkpt lat="43.006666398012335" lon="-0.7370869582062946"><ele>1115.0</ele><time>2026-03-31T14:52:52Z</time></trkpt><trkpt lat="43.00660437985428" lon="-0.737036731939115"><ele>1115.0</ele><time>2026-03-31T14:52:53Z</time></trkpt><trkpt lat="43.0065408953683" lon="-0.7370037871617575"><ele>1115.0</ele><time>2026-03-31T14:52:54Z</time></trkpt><trkpt lat="43.00645140695857" lon="-0.7370637833908801"><ele>1115.0</ele><time>2026-03-31T14:52:56Z</time></trkpt><trkpt lat="43.00646656455571" lon="-0.7372181973799824"><ele>1115.0</ele><time>2026-03-31T14:52:58Z</time></trkpt><trkpt lat="43.006513998728224" lon="-0.7373313468908537"><ele>1115.0</ele><time>2026-03-31T14:52:59Z</time></trkpt><trkpt lat="43.00657619881188" lon="-0.7374610691896288"><ele>1115.0</ele><time>2026-03-31T14:53:00Z</time></trkpt><trkpt lat="43.006647562911304" lon="-0.7375862554917322"><ele>1115.0</ele><time>2026-03-31T14:53:01Z</time></trkpt><trkpt lat="43.00672606135945" lon="-0.7377173328936548"><ele>1115.0</ele><time>2026-03-31T14:53:02Z</time></trkpt><trkpt lat="43.00680653172607" lon="-0.7378489322993175"><ele>1114.0</ele><time>2026-03-31T14:53:03Z</time></trkpt><trkpt lat="43.00683855574139" lon="-0.7379977265421005"><ele>1113.0</ele><time>2026-03-31T14:53:04Z</time></trkpt><trkpt lat="43.00690467079776" lon="-0.7381346578052121"><ele>1112.0</ele><time>2026-03-31T14:53:05Z</time></trkpt><trkpt lat="43.006953170534814" lon="-0.7382871814134632"><ele>1111.0</ele><time>2026-03-31T14:53:06Z</time></trkpt><trkpt lat="43.00696739911776" lon="-0.7384568777392728"><ele>1110.0</ele><time>2026-03-31T14:53:07Z</time></trkpt><trkpt lat="43.00696776970494" lon="-0.7386372005352141"><ele>1109.0</ele><time>2026-03-31T14:53:08Z</time></trkpt><trkpt lat="43.00695316181862" lon="-0.7388352779668372"><ele>1108.0</ele><time>2026-03-31T14:53:09Z</time></trkpt><trkpt lat="43.0069185773248" lon="-0.7390423257100857"><ele>1107.0</ele><time>2026-03-31T14:53:10Z</time></trkpt><trkpt lat="43.006887052053614" lon="-0.7392445631567754"><ele>1103.75</ele><time>2026-03-31T14:53:11Z</time></trkpt><trkpt lat="43.00686201996188" lon="-0.7394449992101689"><ele>1100.5</ele><time>2026-03-31T14:53:12Z</time></trkpt><trkpt lat="43.00686119705768" lon="-0.7396415906327852"><ele>1097.25</ele><time>2026-03-31T14:53:13Z</time></trkpt><trkpt lat="43.00688548547116" lon="-0.7398240666918328"><ele>1094.0</ele><time>2026-03-31T14:53:14Z</time></trkpt><trkpt lat="43.00689971264097" lon="-0.7399992298199841"><ele>1094.0</ele><time>2026-03-31T14:53:15Z</time></trkpt><trkpt lat="43.00687214076579" lon="-0.7401696532795153"><ele>1094.0</ele><time>2026-03-31T14:53:16Z</time></trkpt><trkpt lat="43.006819160759726" lon="-0.7403315239038071"><ele>1094.0</ele><time>2026-03-31T14:53:17Z</time></trkpt><trkpt lat="43.00677291957637" lon="-0.7404860148074492"><ele>1094.0</ele><time>2026-03-31T14:53:18Z</time></trkpt><trkpt lat="43.006706879154244" lon="-0.7406286365952811"><ele>1092.75</ele><time>2026-03-31T14:53:19Z</time></trkpt><trkpt lat="43.00663081267984" lon="-0.7407674834638743"><ele>1091.5</ele><time>2026-03-31T14:53:20Z</time></trkpt><trkpt lat="43.00654311472627" lon="-0.7409010427512932"><ele>1090.25</ele><time>2026-03-31T14:53:21Z</time></trkpt><trkpt lat="43.006448244727245" lon="-0.7410285845726691"><ele>1089.0</ele><time>2026-03-31T14:53:22Z</time></trkpt><trkpt lat="43.00635898881225" lon="-0.7411661978035363"><ele>1089.0</ele><time>2026-03-31T14:53:23Z</time></trkpt><trkpt lat="43.00627940770456" lon="-0.7413166378981784"><ele>1089.0</ele><time>2026-03-31T14:53:24Z</time></trkpt><trkpt lat="43.00621508717471" lon="-0.7414642904980349"><ele>1089.0</ele><time>2026-03-31T14:53:25Z</time></trkpt><trkpt lat="43.006161698509985" lon="-0.7416129209977567"><ele>1089.0</ele><time>2026-03-31T14:53:26Z</time></trkpt><trkpt lat="43.00611102742907" lon="-0.7417218799034166"><ele>1089.0</ele><time>2026-03-31T14:53:27Z</time></trkpt><trkpt lat="43.00606487798114" lon="-0.7418150165889139"><ele>1089.0</ele><time>2026-03-31T14:53:28Z</time></trkpt><trkpt lat="43.00606531829826" lon="-0.7419150703118094"><ele>1089.0</ele><time>2026-03-31T14:53:29Z</time></trkpt><trkpt lat="43.00610541632697" lon="-0.7419911105636087"><ele>1089.0</ele><time>2026-03-31T14:53:30Z</time></trkpt><trkpt lat="43.006170862349954" lon="-0.7420262717434553"><ele>1089.0</ele><time>2026-03-31T14:53:31Z</time></trkpt><trkpt lat="43.00624205422841" lon="-0.7420045347554531"><ele>1089.0</ele><time>2026-03-31T14:53:32Z</time></trkpt><trkpt lat="43.006287259762644" lon="-0.7418953086746836"><ele>1089.0</ele><time>2026-03-31T14:53:33Z</time></trkpt><trkpt lat="43.006333700893094" lon="-0.7417793272887196"><ele>1089.0</ele><time>2026-03-31T14:53:34Z</time></trkpt><trkpt lat="43.00639746338683" lon="-0.7416215333767019"><ele>1089.0</ele><time>2026-03-31T14:53:35Z</time></trkpt><trkpt lat="43.006465040556144" lon="-0.7414887729815539"><ele>1089.0</ele><time>2026-03-31T14:53:36Z</time></trkpt><trkpt lat="43.00650655588525" lon="-0.7413504112978551"><ele>1089.0</ele><time>2026-03-31T14:53:37Z</time></trkpt><trkpt lat="43.006601719009474" lon="-0.7412588539109365"><ele>1089.0</ele><time>2026-03-31T14:53:38Z</time></trkpt><trkpt lat="43.006705228039905" lon="-0.741187973218868"><ele>1089.0</ele><time>2026-03-31T14:53:39Z</time></trkpt><trkpt lat="43.00681787015651" lon="-0.7411442314054362"><ele>1089.0</ele><time>2026-03-31T14:53:40Z</time></trkpt><trkpt lat="43.006930455241495" lon="-0.7411032143358925"><ele>1085.25</ele><time>2026-03-31T14:53:41Z</time></trkpt><trkpt lat="43.007034536688955" lon="-0.7410162233580959"><ele>1081.5</ele><time>2026-03-31T14:53:42Z</time></trkpt><trkpt lat="43.007141986776944" lon="-0.7409315738270918"><ele>1077.75</ele><time>2026-03-31T14:53:43Z</time></trkpt><trkpt lat="43.00724125048587" lon="-0.7408484853213159"><ele>1074.0</ele><time>2026-03-31T14:53:44Z</time></trkpt><trkpt lat="43.007335913285836" lon="-0.7407850165664566"><ele>1074.0</ele><time>2026-03-31T14:53:45Z</time></trkpt><trkpt lat="43.007404241412004" lon="-0.7406857093323664"><ele>1074.0</ele><time>2026-03-31T14:53:46Z</time></trkpt><trkpt lat="43.007441621068956" lon="-0.7405536005848787"><ele>1074.0</ele><time>2026-03-31T14:53:47Z</time></trkpt><trkpt lat="43.00747415230211" lon="-0.7404272189461202"><ele>1074.0</ele><time>2026-03-31T14:53:48Z</time></trkpt><trkpt lat="43.00751880543127" lon="-0.7403218903734782"><ele>1074.0</ele><time>2026-03-31T14:53:49Z</time></trkpt><trkpt lat="43.007539283937355" lon="-0.7402307484756612"><ele>1070.3333333333333</ele><time>2026-03-31T14:53:50Z</time></trkpt><trkpt lat="43.00760479852767" lon="-0.7401793074424429"><ele>1066.6666666666667</ele><time>2026-03-31T14:53:51Z</time></trkpt><trkpt lat="43.00770259797867" lon="-0.7402414320965964"><ele>1063.0</ele><time>2026-03-31T14:53:52Z</time></trkpt><trkpt lat="43.007755778633495" lon="-0.7403239995639334"><ele>1059.3333333333335</ele><time>2026-03-31T14:53:53Z</time></trkpt><trkpt lat="43.00777804748399" lon="-0.7404273616421149"><ele>1055.6666666666667</ele><time>2026-03-31T14:53:54Z</time></trkpt><trkpt lat="43.007759436266646" lon="-0.7405434105304483"><ele>1052.0</ele><time>2026-03-31T14:53:55Z</time></trkpt><trkpt lat="43.007719029519265" lon="-0.740673157866639"><ele>1052.0</ele><time>2026-03-31T14:53:56Z</time></trkpt><trkpt lat="43.007662086189" lon="-0.7408183897932862"><ele>1052.0</ele><time>2026-03-31T14:53:57Z</time></trkpt><trkpt lat="43.00759438011283" lon="-0.7409710781767839"><ele>1052.0</ele><time>2026-03-31T14:53:58Z</time></trkpt><trkpt lat="43.00752967463049" lon="-0.7411383138344592"><ele>1052.0</ele><time>2026-03-31T14:53:59Z</time></trkpt><trkpt lat="43.00746756341605" lon="-0.7413191995896248"><ele>1052.0</ele><time>2026-03-31T14:54:00Z</time></trkpt><trkpt lat="43.007405713415935" lon="-0.7414995491339056"><ele>1052.0</ele><time>2026-03-31T14:54:01Z</time></trkpt><trkpt lat="43.0073486654069" lon="-0.7416806950372204"><ele>1052.0</ele><time>2026-03-31T14:54:02Z</time></trkpt><trkpt lat="43.0072953981916" lon="-0.7418584364153374"><ele>1052.0</ele><time>2026-03-31T14:54:03Z</time></trkpt><trkpt lat="43.00721557129303" lon="-0.7420201650494144"><ele>1046.75</ele><time>2026-03-31T14:54:04Z</time></trkpt><trkpt lat="43.00713401377565" lon="-0.7421731741375375"><ele>1041.5</ele><time>2026-03-31T14:54:05Z</time></trkpt><trkpt lat="43.00704381851969" lon="-0.7423177885578685"><ele>1036.25</ele><time>2026-03-31T14:54:06Z</time></trkpt><trkpt lat="43.006957330771336" lon="-0.742465130907782"><ele>1031.0</ele><time>2026-03-31T14:54:07Z</time></trkpt><trkpt lat="43.006867699772705" lon="-0.7426292903954754"><ele>1031.0</ele><time>2026-03-31T14:54:08Z</time></trkpt><trkpt lat="43.006780990369094" lon="-0.7428041301511358"><ele>1031.0</ele><time>2026-03-31T14:54:09Z</time></trkpt><trkpt lat="43.006691188906224" lon="-0.7429804325217068"><ele>1031.0</ele><time>2026-03-31T14:54:10Z</time></trkpt><trkpt lat="43.006591820276455" lon="-0.7431490975736523"><ele>1031.0</ele><time>2026-03-31T14:54:11Z</time></trkpt><trkpt lat="43.00648146776744" lon="-0.7433097775749716"><ele>1031.0</ele><time>2026-03-31T14:54:12Z</time></trkpt><trkpt lat="43.006358615556664" lon="-0.7434598157425515"><ele>1031.0</ele><time>2026-03-31T14:54:13Z</time></trkpt><trkpt lat="43.006234919981786" lon="-0.7436088076161472"><ele>1018.6666666666667</ele><time>2026-03-31T14:54:14Z</time></trkpt><trkpt lat="43.006111709329716" lon="-0.7437587705559376"><ele>1006.3333333333333</ele><time>2026-03-31T14:54:15Z</time></trkpt><trkpt lat="43.00598704466163" lon="-0.7439035578267678"><ele>994.0</ele><time>2026-03-31T14:54:16Z</time></trkpt><trkpt lat="43.00585432856691" lon="-0.7440385026915347"><ele>1005.0</ele><time>2026-03-31T14:54:17Z</time></trkpt><trkpt lat="43.005717385095004" lon="-0.7441617126817855"><ele>1016.0</ele><time>2026-03-31T14:54:18Z</time></trkpt><trkpt lat="43.00557405385424" lon="-0.7442553841655517"><ele>1027.0</ele><time>2026-03-31T14:54:19Z</time></trkpt><trkpt lat="43.005431950485175" lon="-0.7443428503997157"><ele>1019.0</ele><time>2026-03-31T14:54:20Z</time></trkpt><trkpt lat="43.00532035434252" lon="-0.7444784766418884"><ele>1011.0</ele><time>2026-03-31T14:54:21Z</time></trkpt><trkpt lat="43.00519963629497" lon="-0.7446014093853937"><ele>1003.0</ele><time>2026-03-31T14:54:22Z</time></trkpt><trkpt lat="43.00511012096788" lon="-0.7447533597084237"><ele>995.0</ele><time>2026-03-31T14:54:23Z</time></trkpt><trkpt lat="43.005015417999516" lon="-0.7448802327955991"><ele>1005.75</ele><time>2026-03-31T14:54:24Z</time></trkpt><trkpt lat="43.004946597716085" lon="-0.7450151760033864"><ele>1016.5</ele><time>2026-03-31T14:54:25Z</time></trkpt><trkpt lat="43.00492934727515" lon="-0.7451732419624965"><ele>1027.25</ele><time>2026-03-31T14:54:26Z</time></trkpt><trkpt lat="43.004904337345124" lon="-0.7453323760395191"><ele>1038.0</ele><time>2026-03-31T14:54:27Z</time></trkpt><trkpt lat="43.0048935743353" lon="-0.7455289251967628"><ele>1038.0</ele><time>2026-03-31T14:54:28Z</time></trkpt><trkpt lat="43.004879980493385" lon="-0.745750128759327"><ele>1038.0</ele><time>2026-03-31T14:54:29Z</time></trkpt><trkpt lat="43.00488252793634" lon="-0.7459698480921906"><ele>1038.0</ele><time>2026-03-31T14:54:30Z</time></trkpt><trkpt lat="43.00490884135112" lon="-0.7461832146688068"><ele>1038.25</ele><time>2026-03-31T14:54:31Z</time></trkpt><trkpt lat="43.004953810973106" lon="-0.7463829687108854"><ele>1038.5</ele><time>2026-03-31T14:54:32Z</time></trkpt><trkpt lat="43.00500769697108" lon="-0.746573234404373"><ele>1038.75</ele><time>2026-03-31T14:54:33Z</time></trkpt><trkpt lat="43.00506571683791" lon="-0.7467492969807324"><ele>1039.0</ele><time>2026-03-31T14:54:34Z</time></trkpt><trkpt lat="43.0051283612913" lon="-0.7469121155987604"><ele>1026.25</ele><time>2026-03-31T14:54:35Z</time></trkpt><trkpt lat="43.005184709997415" lon="-0.7470726621008991"><ele>1013.5</ele><time>2026-03-31T14:54:36Z</time></trkpt><trkpt lat="43.005239636803964" lon="-0.7472287906519183"><ele>1000.75</ele><time>2026-03-31T14:54:37Z</time></trkpt><trkpt lat="43.005281746664515" lon="-0.7473922308109273"><ele>988.0</ele><time>2026-03-31T14:54:38Z</time></trkpt><trkpt lat="43.005310766436175" lon="-0.7475646947179762"><ele>989.5</ele><time>2026-03-31T14:54:39Z</time></trkpt><trkpt lat="43.005337506538964" lon="-0.747742869718764"><ele>991.0</ele><time>2026-03-31T14:54:40Z</time></trkpt><trkpt lat="43.00537098780677" lon="-0.7479095223830303"><ele>992.5</ele><time>2026-03-31T14:54:41Z</time></trkpt><trkpt lat="43.00541637480635" lon="-0.7480548028361556"><ele>994.0</ele><time>2026-03-31T14:54:42Z</time></trkpt><trkpt lat="43.00548204344606" lon="-0.7481755935405582"><ele>994.0</ele><time>2026-03-31T14:54:43Z</time></trkpt><trkpt lat="43.0055867632834" lon="-0.7482550556106399"><ele>994.0</ele><time>2026-03-31T14:54:44Z</time></trkpt><trkpt lat="43.00569108614794" lon="-0.7483610362167958"><ele>994.0</ele><time>2026-03-31T14:54:45Z</time></trkpt><trkpt lat="43.005826139425125" lon="-0.7484278186953661"><ele>994.0</ele><time>2026-03-31T14:54:46Z</time></trkpt><trkpt lat="43.00598000751412" lon="-0.7484679253488182"><ele>981.3333333333333</ele><time>2026-03-31T14:54:47Z</time></trkpt><trkpt lat="43.00614582727885" lon="-0.7484850453933455"><ele>968.6666666666667</ele><time>2026-03-31T14:54:48Z</time></trkpt><trkpt lat="43.00633684582117" lon="-0.7485015597472926"><ele>956.0</ele><time>2026-03-31T14:54:49Z</time></trkpt><trkpt lat="43.006539383635534" lon="-0.7485239229202924"><ele>957.3333333333334</ele><time>2026-03-31T14:54:50Z</time></trkpt><trkpt lat="43.006747122033815" lon="-0.7485496008347767"><ele>958.6666666666667</ele><time>2026-03-31T14:54:51Z</time></trkpt><trkpt lat="43.00694127262656" lon="-0.7485806146874512"><ele>960.0</ele><time>2026-03-31T14:54:52Z</time></trkpt><trkpt lat="43.00712552614774" lon="-0.7486150027062209"><ele>960.0</ele><time>2026-03-31T14:54:53Z</time></trkpt><trkpt lat="43.00730049350643" lon="-0.7486486377051044"><ele>960.0</ele><time>2026-03-31T14:54:54Z</time></trkpt><trkpt lat="43.00747507822975" lon="-0.748674964165819"><ele>960.0</ele><time>2026-03-31T14:54:55Z</time></trkpt><trkpt lat="43.00764649436481" lon="-0.7486522042429498"><ele>961.0</ele><time>2026-03-31T14:54:56Z</time></trkpt><trkpt lat="43.00782486703413" lon="-0.7486076363444266"><ele>962.0</ele><time>2026-03-31T14:54:57Z</time></trkpt><trkpt lat="43.00799857420958" lon="-0.7485440580860888"><ele>963.0</ele><time>2026-03-31T14:54:58Z</time></trkpt><trkpt lat="43.00817467153273" lon="-0.7484710907076574"><ele>956.0</ele><time>2026-03-31T14:54:59Z</time></trkpt><trkpt lat="43.00833330495921" lon="-0.7483544187964795"><ele>949.0</ele><time>2026-03-31T14:55:00Z</time></trkpt><trkpt lat="43.00849502317895" lon="-0.7482377118930648"><ele>942.0</ele><time>2026-03-31T14:55:01Z</time></trkpt><trkpt lat="43.00866123031533" lon="-0.7481328677823242"><ele>942.0</ele><time>2026-03-31T14:55:02Z</time></trkpt><trkpt lat="43.00883029334538" lon="-0.7480325295878257"><ele>942.0</ele><time>2026-03-31T14:55:03Z</time></trkpt><trkpt lat="43.00899928027109" lon="-0.7479370425559557"><ele>942.0</ele><time>2026-03-31T14:55:04Z</time></trkpt><trkpt lat="43.00917222294839" lon="-0.7478459824672116"><ele>946.0</ele><time>2026-03-31T14:55:05Z</time></trkpt><trkpt lat="43.00935978629741" lon="-0.7477403545414257"><ele>950.0</ele><time>2026-03-31T14:55:06Z</time></trkpt><trkpt lat="43.00955563240474" lon="-0.7476058518090556"><ele>954.0</ele><time>2026-03-31T14:55:07Z</time></trkpt><trkpt lat="43.00973989406045" lon="-0.7474549464768692"><ele>942.6666666666667</ele><time>2026-03-31T14:55:08Z</time></trkpt><trkpt lat="43.00991654490862" lon="-0.7473114991441034"><ele>931.3333333333334</ele><time>2026-03-31T14:55:09Z</time></trkpt><trkpt lat="43.010100418718395" lon="-0.7471869672826233"><ele>920.0</ele><time>2026-03-31T14:55:10Z</time></trkpt><trkpt lat="43.01028783568976" lon="-0.747081893726304"><ele>920.0</ele><time>2026-03-31T14:55:11Z</time></trkpt><trkpt lat="43.010475484036654" lon="-0.7470113862876727"><ele>920.0</ele><time>2026-03-31T14:55:12Z</time></trkpt><trkpt lat="43.01067927226083" lon="-0.7469754907509846"><ele>920.0</ele><time>2026-03-31T14:55:13Z</time></trkpt><trkpt lat="43.01088246393156" lon="-0.7469496930976464"><ele>921.6666666666667</ele><time>2026-03-31T14:55:14Z</time></trkpt><trkpt lat="43.011061322838636" lon="-0.7469228535326637"><ele>923.3333333333333</ele><time>2026-03-31T14:55:15Z</time></trkpt><trkpt lat="43.011237521064444" lon="-0.7469378541929323"><ele>925.0</ele><time>2026-03-31T14:55:16Z</time></trkpt><trkpt lat="43.011427282829864" lon="-0.7470118047307664"><ele>925.0</ele><time>2026-03-31T14:55:17Z</time></trkpt><trkpt lat="43.011622136797904" lon="-0.7471330831341617"><ele>925.0</ele><time>2026-03-31T14:55:18Z</time></trkpt><trkpt lat="43.011794356256694" lon="-0.7473013797415383"><ele>925.0</ele><time>2026-03-31T14:55:19Z</time></trkpt><trkpt lat="43.01194744901359" lon="-0.7474839066549949"><ele>920.3333333333333</ele><time>2026-03-31T14:55:20Z</time></trkpt><trkpt lat="43.01211083063341" lon="-0.7476240223593402"><ele>915.6666666666667</ele><time>2026-03-31T14:55:21Z</time></trkpt><trkpt lat="43.012264836549" lon="-0.747664641844641"><ele>911.0</ele><time>2026-03-31T14:55:22Z</time></trkpt><trkpt lat="43.012418246233025" lon="-0.7476851721973675"><ele>909.0</ele><time>2026-03-31T14:55:23Z</time></trkpt><trkpt lat="43.01255707179019" lon="-0.7477730637407227"><ele>907.0</ele><time>2026-03-31T14:55:24Z</time></trkpt><trkpt lat="43.01269381022413" lon="-0.7478913561881742"><ele>905.0</ele><time>2026-03-31T14:55:25Z</time></trkpt><trkpt lat="43.012812365992225" lon="-0.7480441416174916"><ele>905.0</ele><time>2026-03-31T14:55:26Z</time></trkpt><trkpt lat="43.012922392096726" lon="-0.7481886276173745"><ele>905.0</ele><time>2026-03-31T14:55:27Z</time></trkpt><trkpt lat="43.013044928798976" lon="-0.7482931621489572"><ele>905.0</ele><time>2026-03-31T14:55:28Z</time></trkpt><trkpt lat="43.013192683049546" lon="-0.7483165760870217"><ele>905.0</ele><time>2026-03-31T14:55:29Z</time></trkpt><trkpt lat="43.01336047266827" lon="-0.7483212863144942"><ele>896.6666666666667</ele><time>2026-03-31T14:55:30Z</time></trkpt><trkpt lat="43.01353989896932" lon="-0.7483188375735939"><ele>888.3333333333333</ele><time>2026-03-31T14:55:31Z</time></trkpt><trkpt lat="43.01371960025875" lon="-0.7483359709442949"><ele>880.0</ele><time>2026-03-31T14:55:32Z</time></trkpt><trkpt lat="43.01389477424342" lon="-0.7483417637599162"><ele>880.0</ele><time>2026-03-31T14:55:33Z</time></trkpt><trkpt lat="43.014067645555365" lon="-0.7483772715411239"><ele>880.0</ele><time>2026-03-31T14:55:34Z</time></trkpt><trkpt lat="43.01423945887512" lon="-0.748371764687301"><ele>880.0</ele><time>2026-03-31T14:55:35Z</time></trkpt><trkpt lat="43.01441293606702" lon="-0.7482793776284941"><ele>874.6666666666666</ele><time>2026-03-31T14:55:36Z</time></trkpt><trkpt lat="43.01459523237343" lon="-0.7482011184936823"><ele>869.3333333333333</ele><time>2026-03-31T14:55:37Z</time></trkpt><trkpt lat="43.014783471408215" lon="-0.7481890619499257"><ele>864.0</ele><time>2026-03-31T14:55:38Z</time></trkpt><trkpt lat="43.01496439322912" lon="-0.7481960061892767"><ele>862.6666666666667</ele><time>2026-03-31T14:55:39Z</time></trkpt><trkpt lat="43.015144658228145" lon="-0.7481900728204658"><ele>861.3333333333334</ele><time>2026-03-31T14:55:40Z</time></trkpt><trkpt lat="43.015312188121946" lon="-0.7482096301983989"><ele>860.0</ele><time>2026-03-31T14:55:41Z</time></trkpt><trkpt lat="43.01546945901106" lon="-0.748269492453356"><ele>860.0</ele><time>2026-03-31T14:55:42Z</time></trkpt><trkpt lat="43.01560552136249" lon="-0.7483607373077743"><ele>860.0</ele><time>2026-03-31T14:55:43Z</time></trkpt><trkpt lat="43.01572224188824" lon="-0.7484666458662644"><ele>860.0</ele><time>2026-03-31T14:55:44Z</time></trkpt><trkpt lat="43.0158118054198" lon="-0.7485527283279747"><ele>860.0</ele><time>2026-03-31T14:55:45Z</time></trkpt><trkpt lat="43.015880603672386" lon="-0.7485896918377936"><ele>859.8333333333334</ele><time>2026-03-31T14:55:46Z</time></trkpt><trkpt lat="43.01595263089074" lon="-0.748575141733284"><ele>859.6666666666667</ele><time>2026-03-31T14:55:47Z</time></trkpt><trkpt lat="43.01600372389331" lon="-0.7485181605402849"><ele>859.5</ele><time>2026-03-31T14:55:48Z</time></trkpt><trkpt lat="43.0159929806999" lon="-0.748371772082872"><ele>859.3333333333333</ele><time>2026-03-31T14:55:50Z</time></trkpt><trkpt lat="43.01592771263226" lon="-0.7483293781296052"><ele>859.1666666666666</ele><time>2026-03-31T14:55:51Z</time></trkpt><trkpt lat="43.015892330572356" lon="-0.7482561471960111"><ele>859.0</ele><time>2026-03-31T14:55:52Z</time></trkpt><trkpt lat="43.01582589897579" lon="-0.7481688670526996"><ele>859.25</ele><time>2026-03-31T14:55:53Z</time></trkpt><trkpt lat="43.01574826624568" lon="-0.7480460798388521"><ele>859.5</ele><time>2026-03-31T14:55:54Z</time></trkpt><trkpt lat="43.01566253821521" lon="-0.7479250371700152"><ele>859.75</ele><time>2026-03-31T14:55:55Z</time></trkpt><trkpt lat="43.01557881091812" lon="-0.7478058903588588"><ele>860.0</ele><time>2026-03-31T14:55:56Z</time></trkpt><trkpt lat="43.01550341776681" lon="-0.7476812468343249"><ele>856.75</ele><time>2026-03-31T14:55:57Z</time></trkpt><trkpt lat="43.01541850002766" lon="-0.747576509507787"><ele>853.5</ele><time>2026-03-31T14:55:58Z</time></trkpt><trkpt lat="43.01533811936939" lon="-0.7474648373736358"><ele>850.25</ele><time>2026-03-31T14:55:59Z</time></trkpt><trkpt lat="43.01523391502416" lon="-0.7473540557157058"><ele>847.0</ele><time>2026-03-31T14:56:00Z</time></trkpt><trkpt lat="43.015122952281885" lon="-0.7472396189954732"><ele>847.0</ele><time>2026-03-31T14:56:01Z</time></trkpt><trkpt lat="43.01502701967635" lon="-0.7471061379676533"><ele>847.0</ele><time>2026-03-31T14:56:02Z</time></trkpt><trkpt lat="43.01494643147292" lon="-0.746955247861353"><ele>847.0</ele><time>2026-03-31T14:56:03Z</time></trkpt><trkpt lat="43.014879322837004" lon="-0.7468297054165788"><ele>847.0</ele><time>2026-03-31T14:56:04Z</time></trkpt><trkpt lat="43.0148265579488" lon="-0.7467328887452588"><ele>845.3333333333333</ele><time>2026-03-31T14:56:05Z</time></trkpt><trkpt lat="43.01478507848935" lon="-0.7466267150991367"><ele>843.6666666666666</ele><time>2026-03-31T14:56:06Z</time></trkpt><trkpt lat="43.01477319527639" lon="-0.7465139645263887"><ele>842.0</ele><time>2026-03-31T14:56:07Z</time></trkpt><trkpt lat="43.01480401097504" lon="-0.7464109066259242"><ele>840.3333333333333</ele><time>2026-03-31T14:56:08Z</time></trkpt><trkpt lat="43.01486402202648" lon="-0.7463475991401606"><ele>838.6666666666666</ele><time>2026-03-31T14:56:09Z</time></trkpt><trkpt lat="43.01495562667082" lon="-0.7463254619119704"><ele>837.0</ele><time>2026-03-31T14:56:10Z</time></trkpt><trkpt lat="43.015081477332366" lon="-0.7463442746296535"><ele>835.6666666666667</ele><time>2026-03-31T14:56:11Z</time></trkpt><trkpt lat="43.015226066653454" lon="-0.7463512119653031"><ele>834.3333333333334</ele><time>2026-03-31T14:56:12Z</time></trkpt><trkpt lat="43.015377840452636" lon="-0.7463694030932825"><ele>833.0</ele><time>2026-03-31T14:56:13Z</time></trkpt><trkpt lat="43.01553225881694" lon="-0.7463836648580631"><ele>833.0</ele><time>2026-03-31T14:56:14Z</time></trkpt><trkpt lat="43.01567907423909" lon="-0.7464092562988988"><ele>833.0</ele><time>2026-03-31T14:56:15Z</time></trkpt><trkpt lat="43.0158523871285" lon="-0.7464231669777875"><ele>833.0</ele><time>2026-03-31T14:56:16Z</time></trkpt><trkpt lat="43.01601184293455" lon="-0.7464425677254058"><ele>831.3333333333334</ele><time>2026-03-31T14:56:17Z</time></trkpt><trkpt lat="43.01618436584393" lon="-0.7464655953282278"><ele>829.6666666666667</ele><time>2026-03-31T14:56:18Z</time></trkpt><trkpt lat="43.016361114768195" lon="-0.7464893881460288"><ele>828.0</ele><time>2026-03-31T14:56:19Z</time></trkpt><trkpt lat="43.01654419944344" lon="-0.746523800784103"><ele>824.0</ele><time>2026-03-31T14:56:20Z</time></trkpt><trkpt lat="43.016731986799265" lon="-0.746588454788521"><ele>820.0</ele><time>2026-03-31T14:56:21Z</time></trkpt><trkpt lat="43.016913922566204" lon="-0.7466780088812478"><ele>816.0</ele><time>2026-03-31T14:56:22Z</time></trkpt><trkpt lat="43.017096541133796" lon="-0.7467832952969251"><ele>815.0</ele><time>2026-03-31T14:56:23Z</time></trkpt><trkpt lat="43.017271636435545" lon="-0.7468926751614241"><ele>814.0</ele><time>2026-03-31T14:56:24Z</time></trkpt><trkpt lat="43.01743505734093" lon="-0.7470152326207103"><ele>813.0</ele><time>2026-03-31T14:56:25Z</time></trkpt><trkpt lat="43.01758410703132" lon="-0.7471602758531919"><ele>813.0</ele><time>2026-03-31T14:56:26Z</time></trkpt><trkpt lat="43.017730863654336" lon="-0.7473104791407671"><ele>813.0</ele><time>2026-03-31T14:56:27Z</time></trkpt><trkpt lat="43.017864664020586" lon="-0.7474556728224611"><ele>813.0</ele><time>2026-03-31T14:56:28Z</time></trkpt><trkpt lat="43.01797274636735" lon="-0.7475798113624395"><ele>813.0</ele><time>2026-03-31T14:56:29Z</time></trkpt><trkpt lat="43.0180601227942" lon="-0.7476817252278982"><ele>813.0</ele><time>2026-03-31T14:56:30Z</time></trkpt><trkpt lat="43.018132532894086" lon="-0.7477689731027217"><ele>813.0</ele><time>2026-03-31T14:56:31Z</time></trkpt><trkpt lat="43.01820453466623" lon="-0.7477897090517238"><ele>813.0</ele><time>2026-03-31T14:56:32Z</time></trkpt><trkpt lat="43.01827326891755" lon="-0.7477347847901441"><ele>813.0</ele><time>2026-03-31T14:56:33Z</time></trkpt><trkpt lat="43.01830583487152" lon="-0.7476269971529612"><ele>813.0</ele><time>2026-03-31T14:56:34Z</time></trkpt><trkpt lat="43.01830751625878" lon="-0.7475012297554322"><ele>813.0</ele><time>2026-03-31T14:56:35Z</time></trkpt><trkpt lat="43.018275413405114" lon="-0.7473770152201089"><ele>813.0</ele><time>2026-03-31T14:56:36Z</time></trkpt><trkpt lat="43.018187329406736" lon="-0.7472173442755109"><ele>813.0</ele><time>2026-03-31T14:56:37Z</time></trkpt><trkpt lat="43.01805881157143" lon="-0.7471442788452474"><ele>813.0</ele><time>2026-03-31T14:56:38Z</time></trkpt><trkpt lat="43.01792685106358" lon="-0.7471070726188772"><ele>813.0</ele><time>2026-03-31T14:56:39Z</time></trkpt><trkpt lat="43.017813240571044" lon="-0.7470721285492236"><ele>813.0</ele><time>2026-03-31T14:56:40Z</time></trkpt><trkpt lat="43.01772681483503" lon="-0.7470195998890461"><ele>813.0</ele><time>2026-03-31T14:56:41Z</time></trkpt><trkpt lat="43.017681547173474" lon="-0.7469343474372256"><ele>813.0</ele><time>2026-03-31T14:56:42Z</time></trkpt><trkpt lat="43.01768975502817" lon="-0.7468197510568636"><ele>809.75</ele><time>2026-03-31T14:56:43Z</time></trkpt><trkpt lat="43.01772931644604" lon="-0.7467280898079091"><ele>806.5</ele><time>2026-03-31T14:56:44Z</time></trkpt><trkpt lat="43.01784766148663" lon="-0.7466889828249588"><ele>803.25</ele><time>2026-03-31T14:56:45Z</time></trkpt><trkpt lat="43.01797459894823" lon="-0.7467363199821296"><ele>800.0</ele><time>2026-03-31T14:56:46Z</time></trkpt><trkpt lat="43.018108479179574" lon="-0.7468056896965335"><ele>800.0</ele><time>2026-03-31T14:56:47Z</time></trkpt><trkpt lat="43.01827322377397" lon="-0.7468781566037149"><ele>800.0</ele><time>2026-03-31T14:56:48Z</time></trkpt><trkpt lat="43.018447362905846" lon="-0.7469588580158981"><ele>800.0</ele><time>2026-03-31T14:56:49Z</time></trkpt><trkpt lat="43.0186092727483" lon="-0.747033078912307"><ele>800.0</ele><time>2026-03-31T14:56:50Z</time></trkpt><trkpt lat="43.01875991206192" lon="-0.7471534487499779"><ele>800.0</ele><time>2026-03-31T14:56:51Z</time></trkpt><trkpt lat="43.01890347733057" lon="-0.7472982584850489"><ele>800.0</ele><time>2026-03-31T14:56:52Z</time></trkpt><trkpt lat="43.019030945827545" lon="-0.7474496870316137"><ele>800.0</ele><time>2026-03-31T14:56:53Z</time></trkpt><trkpt lat="43.01914986819768" lon="-0.747596791294752"><ele>800.0</ele><time>2026-03-31T14:56:54Z</time></trkpt><trkpt lat="43.01925966280272" lon="-0.7477241834148372"><ele>800.0</ele><time>2026-03-31T14:56:55Z</time></trkpt><trkpt lat="43.019383224977474" lon="-0.7478175505653971"><ele>800.0</ele><time>2026-03-31T14:56:56Z</time></trkpt><trkpt lat="43.01952863986733" lon="-0.7478152472554304"><ele>800.25</ele><time>2026-03-31T14:56:57Z</time></trkpt><trkpt lat="43.01967514882097" lon="-0.7478068085128841"><ele>800.5</ele><time>2026-03-31T14:56:58Z</time></trkpt><trkpt lat="43.0198173188491" lon="-0.7478285353433939"><ele>800.75</ele><time>2026-03-31T14:56:59Z</time></trkpt><trkpt lat="43.01995561858608" lon="-0.7478363181349656"><ele>801.0</ele><time>2026-03-31T14:57:00Z</time></trkpt><trkpt lat="43.020069963144664" lon="-0.7479275891866166"><ele>798.25</ele><time>2026-03-31T14:57:01Z</time></trkpt><trkpt lat="43.02014954125559" lon="-0.7480683306221662"><ele>795.5</ele><time>2026-03-31T14:57:02Z</time></trkpt><trkpt lat="43.02021574989439" lon="-0.7482298299651479"><ele>792.75</ele><time>2026-03-31T14:57:03Z</time></trkpt><trkpt lat="43.020284183698486" lon="-0.7483755858429323"><ele>790.0</ele><time>2026-03-31T14:57:04Z</time></trkpt><trkpt lat="43.020399340278814" lon="-0.7484720400608852"><ele>795.0</ele><time>2026-03-31T14:57:05Z</time></trkpt><trkpt lat="43.02051530506595" lon="-0.7485816626189504"><ele>800.0</ele><time>2026-03-31T14:57:06Z</time></trkpt><trkpt lat="43.02065745926956" lon="-0.7486425610637903"><ele>805.0</ele><time>2026-03-31T14:57:07Z</time></trkpt><trkpt lat="43.020810891972424" lon="-0.7486722487256745"><ele>810.0</ele><time>2026-03-31T14:57:08Z</time></trkpt><trkpt lat="43.020974927072594" lon="-0.7486413120500907"><ele>810.0</ele><time>2026-03-31T14:57:09Z</time></trkpt><trkpt lat="43.02114166107495" lon="-0.7485864972617217"><ele>810.0</ele><time>2026-03-31T14:57:10Z</time></trkpt><trkpt lat="43.021329331618865" lon="-0.7485754998277537"><ele>810.0</ele><time>2026-03-31T14:57:11Z</time></trkpt><trkpt lat="43.02153228987595" lon="-0.7485405547521605"><ele>796.6666666666667</ele><time>2026-03-31T14:57:12Z</time></trkpt><trkpt lat="43.02174318667346" lon="-0.7485241182985823"><ele>783.3333333333334</ele><time>2026-03-31T14:57:13Z</time></trkpt><trkpt lat="43.02194385072745" lon="-0.7484557651606645"><ele>770.0</ele><time>2026-03-31T14:57:14Z</time></trkpt><trkpt lat="43.0221368471403" lon="-0.748373958656588"><ele>770.0</ele><time>2026-03-31T14:57:15Z</time></trkpt><trkpt lat="43.022322315516355" lon="-0.7482695870361786"><ele>770.0</ele><time>2026-03-31T14:57:16Z</time></trkpt><trkpt lat="43.02251468260308" lon="-0.7482075689058031"><ele>770.0</ele><time>2026-03-31T14:57:17Z</time></trkpt><trkpt lat="43.022709348453375" lon="-0.7481313779220519"><ele>767.0</ele><time>2026-03-31T14:57:18Z</time></trkpt><trkpt lat="43.02291167755912" lon="-0.7480719759085568"><ele>764.0</ele><time>2026-03-31T14:57:19Z</time></trkpt><trkpt lat="43.023115921851414" lon="-0.7479921129969759"><ele>761.0</ele><time>2026-03-31T14:57:20Z</time></trkpt><trkpt lat="43.023319625884156" lon="-0.7478975666346467"><ele>761.0</ele><time>2026-03-31T14:57:21Z</time></trkpt><trkpt lat="43.02351718286121" lon="-0.7477663175346074"><ele>761.0</ele><time>2026-03-31T14:57:22Z</time></trkpt><trkpt lat="43.02372072852881" lon="-0.7476663203736165"><ele>761.0</ele><time>2026-03-31T14:57:23Z</time></trkpt><trkpt lat="43.023916890761974" lon="-0.7475473038646153"><ele>751.6666666666666</ele><time>2026-03-31T14:57:24Z</time></trkpt><trkpt lat="43.024111472396484" lon="-0.7474347590511435"><ele>742.3333333333334</ele><time>2026-03-31T14:57:25Z</time></trkpt><trkpt lat="43.02430316567946" lon="-0.74734166802247"><ele>733.0</ele><time>2026-03-31T14:57:26Z</time></trkpt><trkpt lat="43.024492243579715" lon="-0.7472767040271596"><ele>733.0</ele><time>2026-03-31T14:57:27Z</time></trkpt><trkpt lat="43.024675589690354" lon="-0.7472179038466519"><ele>733.0</ele><time>2026-03-31T14:57:28Z</time></trkpt><trkpt lat="43.02484865838347" lon="-0.7471539433685033"><ele>733.0</ele><time>2026-03-31T14:57:29Z</time></trkpt><trkpt lat="43.02501597416228" lon="-0.7470861536379133"><ele>739.0</ele><time>2026-03-31T14:57:30Z</time></trkpt><trkpt lat="43.025175427347676" lon="-0.7470240245842508"><ele>745.0</ele><time>2026-03-31T14:57:31Z</time></trkpt><trkpt lat="43.02533797902416" lon="-0.7469723057487697"><ele>751.0</ele><time>2026-03-31T14:57:32Z</time></trkpt><trkpt lat="43.02550147941181" lon="-0.7469426936982353"><ele>751.0</ele><time>2026-03-31T14:57:33Z</time></trkpt><trkpt lat="43.02566455515692" lon="-0.7469134378828147"><ele>751.0</ele><time>2026-03-31T14:57:34Z</time></trkpt><trkpt lat="43.025827805428634" lon="-0.7468880422265839"><ele>751.0</ele><time>2026-03-31T14:57:35Z</time></trkpt><trkpt lat="43.025983718067344" lon="-0.7468681090432006"><ele>752.6666666666667</ele><time>2026-03-31T14:57:36Z</time></trkpt><trkpt lat="43.026139897156774" lon="-0.7468625049982935"><ele>754.3333333333334</ele><time>2026-03-31T14:57:37Z</time></trkpt><trkpt lat="43.026295277574306" lon="-0.7468731837053527"><ele>756.0</ele><time>2026-03-31T14:57:38Z</time></trkpt><trkpt lat="43.02645245226736" lon="-0.7468971264206542"><ele>756.0</ele><time>2026-03-31T14:57:39Z</time></trkpt><trkpt lat="43.02660769303948" lon="-0.7469198236461057"><ele>756.0</ele><time>2026-03-31T14:57:40Z</time></trkpt><trkpt lat="43.026757063754715" lon="-0.7469000905163512"><ele>756.0</ele><time>2026-03-31T14:57:41Z</time></trkpt><trkpt lat="43.02688726694" lon="-0.7469338184889243"><ele>756.0</ele><time>2026-03-31T14:57:42Z</time></trkpt><trkpt lat="43.02700906812277" lon="-0.7469535730951876"><ele>753.8333333333334</ele><time>2026-03-31T14:57:43Z</time></trkpt><trkpt lat="43.02711915226339" lon="-0.7469592538315687"><ele>751.6666666666666</ele><time>2026-03-31T14:57:44Z</time></trkpt><trkpt lat="43.027210208317356" lon="-0.7469776596675162"><ele>749.5</ele><time>2026-03-31T14:57:45Z</time></trkpt><trkpt lat="43.02728014712113" lon="-0.7469828482296151"><ele>747.3333333333333</ele><time>2026-03-31T14:57:46Z</time></trkpt><trkpt lat="43.02732612898994" lon="-0.7469121790151658"><ele>745.1666666666666</ele><time>2026-03-31T14:57:47Z</time></trkpt><trkpt lat="43.02732610827897" lon="-0.7468096967623877"><ele>743.0</ele><time>2026-03-31T14:57:48Z</time></trkpt><trkpt lat="43.027269962567544" lon="-0.7467321843972329"><ele>731.0</ele><time>2026-03-31T14:57:49Z</time></trkpt><trkpt lat="43.027181790582496" lon="-0.7466984476046881"><ele>719.0</ele><time>2026-03-31T14:57:50Z</time></trkpt><trkpt lat="43.027063850234654" lon="-0.7466700421002122"><ele>707.0</ele><time>2026-03-31T14:57:51Z</time></trkpt><trkpt lat="43.02692137623654" lon="-0.7466375144596689"><ele>695.0</ele><time>2026-03-31T14:57:52Z</time></trkpt><trkpt lat="43.02677859322577" lon="-0.746583573958611"><ele>699.0</ele><time>2026-03-31T14:57:53Z</time></trkpt><trkpt lat="43.026621981613346" lon="-0.7465166515885612"><ele>703.0</ele><time>2026-03-31T14:57:54Z</time></trkpt><trkpt lat="43.02645907008981" lon="-0.746465015815402"><ele>707.0</ele><time>2026-03-31T14:57:55Z</time></trkpt><trkpt lat="43.02628939467158" lon="-0.746438009935283"><ele>707.0</ele><time>2026-03-31T14:57:56Z</time></trkpt><trkpt lat="43.02612000542065" lon="-0.7464175593914375"><ele>707.0</ele><time>2026-03-31T14:57:57Z</time></trkpt><trkpt lat="43.025958646488185" lon="-0.7463928001810958"><ele>707.0</ele><time>2026-03-31T14:57:58Z</time></trkpt><trkpt lat="43.025800084472124" lon="-0.7463549902804415"><ele>707.0</ele><time>2026-03-31T14:57:59Z</time></trkpt><trkpt lat="43.02565590996777" lon="-0.7463143295672527"><ele>707.0</ele><time>2026-03-31T14:58:00Z</time></trkpt><trkpt lat="43.02552074716624" lon="-0.7462818140798886"><ele>707.0</ele><time>2026-03-31T14:58:01Z</time></trkpt><trkpt lat="43.025395249048174" lon="-0.7462787404192136"><ele>707.0</ele><time>2026-03-31T14:58:02Z</time></trkpt><trkpt lat="43.02528306793708" lon="-0.7462935615696911"><ele>707.0</ele><time>2026-03-31T14:58:03Z</time></trkpt><trkpt lat="43.02518602941138" lon="-0.746282689789744"><ele>707.0</ele><time>2026-03-31T14:58:04Z</time></trkpt><trkpt lat="43.02512238203682" lon="-0.746209857877345"><ele>707.0</ele><time>2026-03-31T14:58:05Z</time></trkpt><trkpt lat="43.02509405070941" lon="-0.7461215281921278"><ele>707.0</ele><time>2026-03-31T14:58:06Z</time></trkpt><trkpt lat="43.02502015147568" lon="-0.7461112004690568"><ele>707.0</ele><time>2026-03-31T14:58:08Z</time></trkpt><trkpt lat="43.02507323894742" lon="-0.746037929208314"><ele>707.0</ele><time>2026-03-31T14:58:11Z</time></trkpt><trkpt lat="43.02506319154865" lon="-0.7459218569604517"><ele>709.8</ele><time>2026-03-31T14:58:14Z</time></trkpt><trkpt lat="43.02495657240248" lon="-0.7458179780699002"><ele>712.6</ele><time>2026-03-31T14:58:31Z</time></trkpt><trkpt lat="43.024903494750575" lon="-0.7458656224697172"><ele>715.4</ele><time>2026-03-31T14:58:52Z</time></trkpt><trkpt lat="43.024982758362874" lon="-0.7458097925555554"><ele>718.1999999999999</ele><time>2026-03-31T14:59:07Z</time></trkpt><trkpt lat="43.02493983137539" lon="-0.7458955619597387"><ele>721.0</ele><time>2026-03-31T15:02:29Z</time></trkpt><trkpt lat="43.02513898991639" lon="-0.7459258955879223"><ele>717.5</ele><time>2026-03-31T15:02:31Z</time></trkpt><trkpt lat="43.02508515147258" lon="-0.7460099924482867"><ele>714.0</ele><time>2026-03-31T15:02:35Z</time></trkpt><trkpt lat="43.02509586140566" lon="-0.7461274329708903"><ele>710.5</ele><time>2026-03-31T15:02:39Z</time></trkpt><trkpt lat="43.02515355296907" lon="-0.7461837805238346"><ele>707.0</ele><time>2026-03-31T15:02:41Z</time></trkpt><trkpt lat="43.02543843770982" lon="-0.7461943927240667"><ele>707.0</ele><time>2026-03-31T15:02:46Z</time></trkpt><trkpt lat="43.0255441684722" lon="-0.7461977492730133"><ele>707.0</ele><time>2026-03-31T15:02:48Z</time></trkpt><trkpt lat="43.025619989312084" lon="-0.7462085879421001"><ele>707.0</ele><time>2026-03-31T15:02:50Z</time></trkpt><trkpt lat="43.025685904691464" lon="-0.7462225635223548"><ele>707.0</ele><time>2026-03-31T15:02:52Z</time></trkpt><trkpt lat="43.02577840962439" lon="-0.7462448252950652"><ele>707.0</ele><time>2026-03-31T15:02:54Z</time></trkpt><trkpt lat="43.02587617354918" lon="-0.7462728005600368"><ele>707.0</ele><time>2026-03-31T15:02:56Z</time></trkpt><trkpt lat="43.02595523701961" lon="-0.7462942203177795"><ele>707.0</ele><time>2026-03-31T15:02:57Z</time></trkpt><trkpt lat="43.026045284266786" lon="-0.7463126991760402"><ele>707.0</ele><time>2026-03-31T15:02:58Z</time></trkpt><trkpt lat="43.026431995415166" lon="-0.745508851993334"><ele>700.6</ele><time>2026-03-31T15:03:03Z</time></trkpt><trkpt lat="43.026514902122656" lon="-0.7454716384585798"><ele>694.2</ele><time>2026-03-31T15:03:04Z</time></trkpt><trkpt lat="43.02661893002639" lon="-0.7454608743172555"><ele>687.8</ele><time>2026-03-31T15:03:05Z</time></trkpt><trkpt lat="43.02672857747594" lon="-0.7454486205312582"><ele>681.4</ele><time>2026-03-31T15:03:06Z</time></trkpt><trkpt lat="43.026843322487316" lon="-0.7454632321807563"><ele>675.0</ele><time>2026-03-31T15:03:07Z</time></trkpt><trkpt lat="43.02696037281071" lon="-0.745513983282052"><ele>675.0</ele><time>2026-03-31T15:03:08Z</time></trkpt><trkpt lat="43.027073105425096" lon="-0.7455968285222385"><ele>675.0</ele><time>2026-03-31T15:03:09Z</time></trkpt><trkpt lat="43.02719139490936" lon="-0.7456813066435755"><ele>675.0</ele><time>2026-03-31T15:03:10Z</time></trkpt><trkpt lat="43.02732896841773" lon="-0.7457411194847934"><ele>675.0</ele><time>2026-03-31T15:03:11Z</time></trkpt><trkpt lat="43.02747699486481" lon="-0.7457663687792163"><ele>672.6666666666666</ele><time>2026-03-31T15:03:12Z</time></trkpt><trkpt lat="43.027634416018124" lon="-0.745784666715547"><ele>670.3333333333333</ele><time>2026-03-31T15:03:13Z</time></trkpt><trkpt lat="43.027794131954124" lon="-0.745809351938078"><ele>668.0</ele><time>2026-03-31T15:03:14Z</time></trkpt><trkpt lat="43.02795389306269" lon="-0.7458647546908719"><ele>668.0</ele><time>2026-03-31T15:03:15Z</time></trkpt><trkpt lat="43.02810352623334" lon="-0.7459520869826414"><ele>668.0</ele><time>2026-03-31T15:03:16Z</time></trkpt><trkpt lat="43.028249168673455" lon="-0.7460489831263877"><ele>668.0</ele><time>2026-03-31T15:03:17Z</time></trkpt><trkpt lat="43.02840016445775" lon="-0.7461392994897782"><ele>670.3333333333333</ele><time>2026-03-31T15:03:18Z</time></trkpt><trkpt lat="43.02854999390224" lon="-0.7462008796690129"><ele>672.6666666666666</ele><time>2026-03-31T15:03:19Z</time></trkpt><trkpt lat="43.02870054579782" lon="-0.746247271754854"><ele>675.0</ele><time>2026-03-31T15:03:20Z</time></trkpt><trkpt lat="43.02884548632844" lon="-0.7463043708747576"><ele>675.0</ele><time>2026-03-31T15:03:21Z</time></trkpt><trkpt lat="43.02897741401585" lon="-0.746388790466492"><ele>675.0</ele><time>2026-03-31T15:03:22Z</time></trkpt><trkpt lat="43.029091276706154" lon="-0.746508063719404"><ele>675.0</ele><time>2026-03-31T15:03:23Z</time></trkpt><trkpt lat="43.029172967978674" lon="-0.7466591788232911"><ele>675.0</ele><time>2026-03-31T15:03:24Z</time></trkpt><trkpt lat="43.029236080424056" lon="-0.7468251855549014"><ele>669.5</ele><time>2026-03-31T15:03:25Z</time></trkpt><trkpt lat="43.02929856949234" lon="-0.7470015131765352"><ele>664.0</ele><time>2026-03-31T15:03:26Z</time></trkpt><trkpt lat="43.02937623899827" lon="-0.7471753856722281"><ele>658.5</ele><time>2026-03-31T15:03:27Z</time></trkpt><trkpt lat="43.02947411323312" lon="-0.7473358228328545"><ele>653.0</ele><time>2026-03-31T15:03:28Z</time></trkpt><trkpt lat="43.0295865489568" lon="-0.7474803948357701"><ele>653.0</ele><time>2026-03-31T15:03:29Z</time></trkpt><trkpt lat="43.02970106545484" lon="-0.7476044993315292"><ele>653.0</ele><time>2026-03-31T15:03:30Z</time></trkpt><trkpt lat="43.029819418807215" lon="-0.7477118463360115"><ele>653.0</ele><time>2026-03-31T15:03:31Z</time></trkpt><trkpt lat="43.029941530680105" lon="-0.747804004458999"><ele>653.0</ele><time>2026-03-31T15:03:32Z</time></trkpt><trkpt lat="43.03006834568996" lon="-0.7478801171721426"><ele>648.5</ele><time>2026-03-31T15:03:33Z</time></trkpt><trkpt lat="43.030190094553014" lon="-0.74795821917832"><ele>644.0</ele><time>2026-03-31T15:03:34Z</time></trkpt><trkpt lat="43.03030009654177" lon="-0.7480591567493508"><ele>639.5</ele><time>2026-03-31T15:03:35Z</time></trkpt><trkpt lat="43.0303976713978" lon="-0.7481841343801205"><ele>635.0</ele><time>2026-03-31T15:03:36Z</time></trkpt><trkpt lat="43.030501305314395" lon="-0.7483062156109975"><ele>635.0</ele><time>2026-03-31T15:03:37Z</time></trkpt><trkpt lat="43.030613477359786" lon="-0.7484042225685692"><ele>635.0</ele><time>2026-03-31T15:03:38Z</time></trkpt><trkpt lat="43.03072673687794" lon="-0.7484821750578577"><ele>635.0</ele><time>2026-03-31T15:03:39Z</time></trkpt><trkpt lat="43.0308491497361" lon="-0.7485343229130851"><ele>635.0</ele><time>2026-03-31T15:03:40Z</time></trkpt><trkpt lat="43.030968952876066" lon="-0.7485703501520362"><ele>634.75</ele><time>2026-03-31T15:03:41Z</time></trkpt><trkpt lat="43.03109037470359" lon="-0.7485771861538769"><ele>634.5</ele><time>2026-03-31T15:03:42Z</time></trkpt><trkpt lat="43.03120613166138" lon="-0.7485449770436967"><ele>634.25</ele><time>2026-03-31T15:03:43Z</time></trkpt><trkpt lat="43.03133002436079" lon="-0.7485353158584547"><ele>634.0</ele><time>2026-03-31T15:03:44Z</time></trkpt><trkpt lat="43.03145185036706" lon="-0.7485612698714984"><ele>634.0</ele><time>2026-03-31T15:03:45Z</time></trkpt><trkpt lat="43.031576631925816" lon="-0.7485916881191266"><ele>634.0</ele><time>2026-03-31T15:03:46Z</time></trkpt><trkpt lat="43.031696293188254" lon="-0.748641878811998"><ele>634.0</ele><time>2026-03-31T15:03:47Z</time></trkpt><trkpt lat="43.03180955554233" lon="-0.7486861872668329"><ele>634.0</ele><time>2026-03-31T15:03:48Z</time></trkpt><trkpt lat="43.03190860574149" lon="-0.7487137293762188"><ele>631.8</ele><time>2026-03-31T15:03:49Z</time></trkpt><trkpt lat="43.032007892623845" lon="-0.7487141925973917"><ele>629.5999999999999</ele><time>2026-03-31T15:03:50Z</time></trkpt><trkpt lat="43.03210112727667" lon="-0.7486695831762084"><ele>627.4</ele><time>2026-03-31T15:03:51Z</time></trkpt><trkpt lat="43.03216354439805" lon="-0.7485732018660766"><ele>625.1999999999999</ele><time>2026-03-31T15:03:52Z</time></trkpt><trkpt lat="43.032207918084396" lon="-0.7484757733121847"><ele>623.0</ele><time>2026-03-31T15:03:53Z</time></trkpt><trkpt lat="43.032246627813315" lon="-0.7483836007312084"><ele>618.6</ele><time>2026-03-31T15:03:54Z</time></trkpt><trkpt lat="43.032296870961744" lon="-0.7483201545037121"><ele>614.1999999999999</ele><time>2026-03-31T15:03:55Z</time></trkpt><trkpt lat="43.03241910580509" lon="-0.7481839484263128"><ele>609.8</ele><time>2026-03-31T15:03:57Z</time></trkpt><trkpt lat="43.03249831172565" lon="-0.7481654539428643"><ele>605.4</ele><time>2026-03-31T15:03:58Z</time></trkpt><trkpt lat="43.03257967130257" lon="-0.7481659966408615"><ele>601.0</ele><time>2026-03-31T15:03:59Z</time></trkpt><trkpt lat="43.032656423625674" lon="-0.7481754043230159"><ele>598.3333333333334</ele><time>2026-03-31T15:04:00Z</time></trkpt><trkpt lat="43.0327399355392" lon="-0.748188702903542"><ele>595.6666666666667</ele><time>2026-03-31T15:04:01Z</time></trkpt><trkpt lat="43.03282428885079" lon="-0.7481978204942276"><ele>593.0</ele><time>2026-03-31T15:04:02Z</time></trkpt><trkpt lat="43.03291165858762" lon="-0.7481987458710349"><ele>590.3333333333334</ele><time>2026-03-31T15:04:03Z</time></trkpt><trkpt lat="43.03299884943763" lon="-0.7481836769091571"><ele>587.6666666666666</ele><time>2026-03-31T15:04:04Z</time></trkpt><trkpt lat="43.03307752214354" lon="-0.748121862721825"><ele>585.0</ele><time>2026-03-31T15:04:05Z</time></trkpt><trkpt lat="43.033163371339086" lon="-0.7480686582733639"><ele>585.0</ele><time>2026-03-31T15:04:06Z</time></trkpt><trkpt lat="43.03325701999929" lon="-0.7480502195745653"><ele>585.0</ele><time>2026-03-31T15:04:07Z</time></trkpt><trkpt lat="43.033348999237454" lon="-0.748037418456656"><ele>585.0</ele><time>2026-03-31T15:04:08Z</time></trkpt><trkpt lat="43.03344759620561" lon="-0.7480410721733853"><ele>585.0</ele><time>2026-03-31T15:04:09Z</time></trkpt><trkpt lat="43.033548520691596" lon="-0.7480558421918546"><ele>585.0</ele><time>2026-03-31T15:04:10Z</time></trkpt><trkpt lat="43.03364995755526" lon="-0.7480721514814066"><ele>583.8</ele><time>2026-03-31T15:04:11Z</time></trkpt><trkpt lat="43.03375345092473" lon="-0.7480876616681625"><ele>582.6</ele><time>2026-03-31T15:04:12Z</time></trkpt><trkpt lat="43.03385936656784" lon="-0.7481039298538689"><ele>581.4</ele><time>2026-03-31T15:04:13Z</time></trkpt><trkpt lat="43.0339647747041" lon="-0.7481202380360751"><ele>580.2</ele><time>2026-03-31T15:04:14Z</time></trkpt><trkpt lat="43.03407241406134" lon="-0.7481303885225002"><ele>579.0</ele><time>2026-03-31T15:04:15Z</time></trkpt><trkpt lat="43.03418109199483" lon="-0.7481307733879806"><ele>578.0</ele><time>2026-03-31T15:04:16Z</time></trkpt><trkpt lat="43.03428690332352" lon="-0.7481324882957548"><ele>577.0</ele><time>2026-03-31T15:04:17Z</time></trkpt><trkpt lat="43.03439528628856" lon="-0.7481461946299618"><ele>576.0</ele><time>2026-03-31T15:04:18Z</time></trkpt><trkpt lat="43.03450340976237" lon="-0.7481812453689958"><ele>575.0</ele><time>2026-03-31T15:04:19Z</time></trkpt><trkpt lat="43.03460434826237" lon="-0.7482300685271291"><ele>574.0</ele><time>2026-03-31T15:04:20Z</time></trkpt><trkpt lat="43.034711510594576" lon="-0.7482713071337882"><ele>574.0</ele><time>2026-03-31T15:04:21Z</time></trkpt><trkpt lat="43.03484017917996" lon="-0.7482903010314174"><ele>574.0</ele><time>2026-03-31T15:04:22Z</time></trkpt><trkpt lat="43.034970934660286" lon="-0.748291105349485"><ele>574.0</ele><time>2026-03-31T15:04:23Z</time></trkpt><trkpt lat="43.035102405558376" lon="-0.7482714129243304"><ele>574.0</ele><time>2026-03-31T15:04:24Z</time></trkpt><trkpt lat="43.03523261642301" lon="-0.748242456262738"><ele>572.5</ele><time>2026-03-31T15:04:25Z</time></trkpt><trkpt lat="43.035360223020064" lon="-0.7482041261004838"><ele>571.0</ele><time>2026-03-31T15:04:26Z</time></trkpt><trkpt lat="43.03548397304669" lon="-0.7481516533468378"><ele>569.5</ele><time>2026-03-31T15:04:27Z</time></trkpt><trkpt lat="43.035598737024735" lon="-0.7480852052105581"><ele>568.0</ele><time>2026-03-31T15:04:28Z</time></trkpt><trkpt lat="43.03570460715629" lon="-0.7480041159632302"><ele>568.0</ele><time>2026-03-31T15:04:29Z</time></trkpt><trkpt lat="43.03580031027464" lon="-0.7479101435930917"><ele>568.0</ele><time>2026-03-31T15:04:30Z</time></trkpt><trkpt lat="43.03588577017262" lon="-0.7478045906550055"><ele>568.0</ele><time>2026-03-31T15:04:31Z</time></trkpt><trkpt lat="43.03596125625519" lon="-0.7476906997650907"><ele>568.0</ele><time>2026-03-31T15:04:32Z</time></trkpt><trkpt lat="43.036024640525675" lon="-0.7475758602533855"><ele>565.3333333333334</ele><time>2026-03-31T15:04:33Z</time></trkpt><trkpt lat="43.036076710780314" lon="-0.7474623147637183"><ele>562.6666666666667</ele><time>2026-03-31T15:04:34Z</time></trkpt><trkpt lat="43.036118729156726" lon="-0.7473592565929271"><ele>560.0</ele><time>2026-03-31T15:04:35Z</time></trkpt><trkpt lat="43.03613909983184" lon="-0.7472491585934241"><ele>557.3333333333334</ele><time>2026-03-31T15:04:36Z</time></trkpt><trkpt lat="43.03617813163221" lon="-0.7471417223164852"><ele>554.6666666666666</ele><time>2026-03-31T15:04:37Z</time></trkpt><trkpt lat="43.03623266709461" lon="-0.7470464357431842"><ele>552.0</ele><time>2026-03-31T15:04:38Z</time></trkpt><trkpt lat="43.03625677029616" lon="-0.7469404389339291"><ele>551.2</ele><time>2026-03-31T15:04:39Z</time></trkpt><trkpt lat="43.036291981193955" lon="-0.7468503144774348"><ele>550.4000000000001</ele><time>2026-03-31T15:04:40Z</time></trkpt><trkpt lat="43.036323274909876" lon="-0.74677021628969"><ele>549.5999999999999</ele><time>2026-03-31T15:04:41Z</time></trkpt><trkpt lat="43.03642891729678" lon="-0.7467574649835043"><ele>548.8</ele><time>2026-03-31T15:04:42Z</time></trkpt><trkpt lat="43.03653205240276" lon="-0.7466734074442014"><ele>548.0</ele><time>2026-03-31T15:04:44Z</time></trkpt><trkpt lat="43.03663285514022" lon="-0.7466118003776417"><ele>545.6</ele><time>2026-03-31T15:04:46Z</time></trkpt><trkpt lat="43.03670485125105" lon="-0.7465896402851496"><ele>543.1999999999999</ele><time>2026-03-31T15:04:47Z</time></trkpt><trkpt lat="43.03679210813485" lon="-0.746581466789232"><ele>540.8</ele><time>2026-03-31T15:04:48Z</time></trkpt><trkpt lat="43.03688921962524" lon="-0.7466026969138924"><ele>538.4</ele><time>2026-03-31T15:04:49Z</time></trkpt><trkpt lat="43.03698811754235" lon="-0.7466422425488923"><ele>536.0</ele><time>2026-03-31T15:04:50Z</time></trkpt><trkpt lat="43.037097707452325" lon="-0.7466856637319378"><ele>536.0</ele><time>2026-03-31T15:04:51Z</time></trkpt><trkpt lat="43.03721303740004" lon="-0.7467307147421958"><ele>536.0</ele><time>2026-03-31T15:04:52Z</time></trkpt><trkpt lat="43.03732432304853" lon="-0.7467892304954815"><ele>536.0</ele><time>2026-03-31T15:04:53Z</time></trkpt><trkpt lat="43.03743124215144" lon="-0.7468723215419605"><ele>536.0</ele><time>2026-03-31T15:04:54Z</time></trkpt><trkpt lat="43.03753506521166" lon="-0.7469734985604458"><ele>540.0</ele><time>2026-03-31T15:04:55Z</time></trkpt><trkpt lat="43.03763645120929" lon="-0.747085519754378"><ele>544.0</ele><time>2026-03-31T15:04:56Z</time></trkpt><trkpt lat="43.03774117210777" lon="-0.7471996634123347"><ele>548.0</ele><time>2026-03-31T15:04:57Z</time></trkpt><trkpt lat="43.03784889989367" lon="-0.7473243744859158"><ele>552.0</ele><time>2026-03-31T15:04:58Z</time></trkpt><trkpt lat="43.0379503105711" lon="-0.7474611233110614"><ele>552.0</ele><time>2026-03-31T15:04:59Z</time></trkpt><trkpt lat="43.038038907906675" lon="-0.7476025384157281"><ele>552.0</ele><time>2026-03-31T15:05:00Z</time></trkpt><trkpt lat="43.03812106421642" lon="-0.7477468923310503"><ele>552.0</ele><time>2026-03-31T15:05:01Z</time></trkpt><trkpt lat="43.038203947077555" lon="-0.7478875694386161"><ele>552.0</ele><time>2026-03-31T15:05:02Z</time></trkpt><trkpt lat="43.03830013652316" lon="-0.7480192681503961"><ele>547.0</ele><time>2026-03-31T15:05:03Z</time></trkpt><trkpt lat="43.038408168233175" lon="-0.7481388195078403"><ele>542.0</ele><time>2026-03-31T15:05:04Z</time></trkpt><trkpt lat="43.03851513411694" lon="-0.7482435743200906"><ele>537.0</ele><time>2026-03-31T15:05:05Z</time></trkpt><trkpt lat="43.03862270054214" lon="-0.7483370971994471"><ele>532.0</ele><time>2026-03-31T15:05:06Z</time></trkpt><trkpt lat="43.0387291104584" lon="-0.7484282809193686"><ele>532.0</ele><time>2026-03-31T15:05:07Z</time></trkpt><trkpt lat="43.03883582057406" lon="-0.7485212149157532"><ele>532.0</ele><time>2026-03-31T15:05:08Z</time></trkpt><trkpt lat="43.0389429841713" lon="-0.748613852559263"><ele>532.0</ele><time>2026-03-31T15:05:09Z</time></trkpt><trkpt lat="43.03905121465492" lon="-0.7487047030788673"><ele>532.0</ele><time>2026-03-31T15:05:10Z</time></trkpt><trkpt lat="43.039172212107374" lon="-0.7487902563436376"><ele>531.75</ele><time>2026-03-31T15:05:11Z</time></trkpt><trkpt lat="43.03929724799718" lon="-0.7488538228125394"><ele>531.5</ele><time>2026-03-31T15:05:12Z</time></trkpt><trkpt lat="43.03941954611317" lon="-0.7488977268583051"><ele>531.25</ele><time>2026-03-31T15:05:13Z</time></trkpt><trkpt lat="43.03953818377402" lon="-0.7489236532042224"><ele>531.0</ele><time>2026-03-31T15:05:14Z</time></trkpt><trkpt lat="43.03965127317611" lon="-0.7489504206669167"><ele>531.0</ele><time>2026-03-31T15:05:15Z</time></trkpt><trkpt lat="43.039753992715234" lon="-0.7489800451103817"><ele>531.0</ele><time>2026-03-31T15:05:16Z</time></trkpt><trkpt lat="43.03984976248176" lon="-0.7490228592253028"><ele>531.0</ele><time>2026-03-31T15:05:17Z</time></trkpt><trkpt lat="43.039942887350556" lon="-0.7490747603401317"><ele>531.0</ele><time>2026-03-31T15:05:18Z</time></trkpt><trkpt lat="43.04003695471654" lon="-0.7491478410235315"><ele>531.0</ele><time>2026-03-31T15:05:19Z</time></trkpt><trkpt lat="43.040132973404056" lon="-0.7492391934115502"><ele>531.75</ele><time>2026-03-31T15:05:20Z</time></trkpt><trkpt lat="43.04022937023121" lon="-0.7493433305417294"><ele>532.5</ele><time>2026-03-31T15:05:21Z</time></trkpt><trkpt lat="43.04033083807065" lon="-0.74945413441839"><ele>533.25</ele><time>2026-03-31T15:05:22Z</time></trkpt><trkpt lat="43.04043405556697" lon="-0.7495739608758252"><ele>534.0</ele><time>2026-03-31T15:05:23Z</time></trkpt><trkpt lat="43.04054425963131" lon="-0.7496954383326887"><ele>534.0</ele><time>2026-03-31T15:05:24Z</time></trkpt><trkpt lat="43.04065532481575" lon="-0.7498141264765537"><ele>534.0</ele><time>2026-03-31T15:05:25Z</time></trkpt><trkpt lat="43.04076401084884" lon="-0.7499373641278434"><ele>534.0</ele><time>2026-03-31T15:05:26Z</time></trkpt><trkpt lat="43.04086901741358" lon="-0.7500707784972411"><ele>534.0</ele><time>2026-03-31T15:05:27Z</time></trkpt><trkpt lat="43.04098276369297" lon="-0.7501856412637786"><ele>536.5</ele><time>2026-03-31T15:05:28Z</time></trkpt><trkpt lat="43.041103087848164" lon="-0.7503140433370472"><ele>539.0</ele><time>2026-03-31T15:05:29Z</time></trkpt><trkpt lat="43.041231688366686" lon="-0.750420769660994"><ele>541.5</ele><time>2026-03-31T15:05:30Z</time></trkpt><trkpt lat="43.04135581732937" lon="-0.7505051657335944"><ele>544.0</ele><time>2026-03-31T15:05:31Z</time></trkpt><trkpt lat="43.04147568577823" lon="-0.7505709500485522"><ele>544.0</ele><time>2026-03-31T15:05:32Z</time></trkpt><trkpt lat="43.04159023635289" lon="-0.7506300741365943"><ele>544.0</ele><time>2026-03-31T15:05:33Z</time></trkpt><trkpt lat="43.041699370778" lon="-0.7506926899388309"><ele>544.0</ele><time>2026-03-31T15:05:34Z</time></trkpt><trkpt lat="43.0418025164076" lon="-0.7507525512643969"><ele>544.0</ele><time>2026-03-31T15:05:35Z</time></trkpt><trkpt lat="43.04190956184685" lon="-0.7508132900121339"><ele>536.25</ele><time>2026-03-31T15:05:36Z</time></trkpt><trkpt lat="43.04202089548962" lon="-0.7508633585207499"><ele>528.5</ele><time>2026-03-31T15:05:37Z</time></trkpt><trkpt lat="43.04213159425348" lon="-0.7508974360209473"><ele>520.75</ele><time>2026-03-31T15:05:38Z</time></trkpt><trkpt lat="43.04224299154679" lon="-0.750909373385252"><ele>513.0</ele><time>2026-03-31T15:05:39Z</time></trkpt><trkpt lat="43.042364644020736" lon="-0.7508948722784562"><ele>512.0</ele><time>2026-03-31T15:05:40Z</time></trkpt><trkpt lat="43.04247829595148" lon="-0.7508609490366631"><ele>511.0</ele><time>2026-03-31T15:05:41Z</time></trkpt><trkpt lat="43.04258282548466" lon="-0.7508078364054449"><ele>510.0</ele><time>2026-03-31T15:05:42Z</time></trkpt><trkpt lat="43.04268651306736" lon="-0.7507472911760749"><ele>509.0</ele><time>2026-03-31T15:05:43Z</time></trkpt><trkpt lat="43.042798629520476" lon="-0.7506901470494259"><ele>509.0</ele><time>2026-03-31T15:05:44Z</time></trkpt><trkpt lat="43.042914995211845" lon="-0.7506367732820542"><ele>509.0</ele><time>2026-03-31T15:05:45Z</time></trkpt><trkpt lat="43.043032673918205" lon="-0.7505883400812027"><ele>509.0</ele><time>2026-03-31T15:05:46Z</time></trkpt><trkpt lat="43.04314556547043" lon="-0.7505475734138612"><ele>509.0</ele><time>2026-03-31T15:05:47Z</time></trkpt><trkpt lat="43.043255983421616" lon="-0.7505238045720469"><ele>508.6</ele><time>2026-03-31T15:05:48Z</time></trkpt><trkpt lat="43.043364433131956" lon="-0.7505296443344777"><ele>508.2</ele><time>2026-03-31T15:05:49Z</time></trkpt><trkpt lat="43.04345455841991" lon="-0.7505771523884229"><ele>507.80000000000007</ele><time>2026-03-31T15:05:50Z</time></trkpt><trkpt lat="43.043549326451036" lon="-0.7506228985811036"><ele>507.40000000000003</ele><time>2026-03-31T15:05:51Z</time></trkpt><trkpt lat="43.043640543813055" lon="-0.7506842974278497"><ele>507.0</ele><time>2026-03-31T15:05:52Z</time></trkpt><trkpt lat="43.04373386083099" lon="-0.7507692759006818"><ele>507.0</ele><time>2026-03-31T15:05:53Z</time></trkpt><trkpt lat="43.04382628118685" lon="-0.7508701475567979"><ele>507.0</ele><time>2026-03-31T15:05:54Z</time></trkpt><trkpt lat="43.043917077097184" lon="-0.7509728310426095"><ele>507.0</ele><time>2026-03-31T15:05:55Z</time></trkpt><trkpt lat="43.044010926845516" lon="-0.751083691625654"><ele>507.0</ele><time>2026-03-31T15:05:56Z</time></trkpt><trkpt lat="43.04409859484068" lon="-0.7512032135571446"><ele>505.75</ele><time>2026-03-31T15:05:57Z</time></trkpt><trkpt lat="43.04417889475121" lon="-0.751339817584475"><ele>504.5</ele><time>2026-03-31T15:05:58Z</time></trkpt><trkpt lat="43.04424708907812" lon="-0.7514757147849973"><ele>503.25</ele><time>2026-03-31T15:05:59Z</time></trkpt><trkpt lat="43.044305224286205" lon="-0.7516096223812277"><ele>502.0</ele><time>2026-03-31T15:06:00Z</time></trkpt><trkpt lat="43.044363439777506" lon="-0.7517331683580522"><ele>502.0</ele><time>2026-03-31T15:06:01Z</time></trkpt><trkpt lat="43.04443027876032" lon="-0.7518439326529542"><ele>502.00000000000006</ele><time>2026-03-31T15:06:02Z</time></trkpt><trkpt lat="43.04450402488237" lon="-0.7519422254924508"><ele>502.00000000000006</ele><time>2026-03-31T15:06:03Z</time></trkpt><trkpt lat="43.04459254786627" lon="-0.7520255118644378"><ele>502.0</ele><time>2026-03-31T15:06:04Z</time></trkpt><trkpt lat="43.04468075589801" lon="-0.7520865372585649"><ele>502.0</ele><time>2026-03-31T15:06:05Z</time></trkpt><trkpt lat="43.044785035481844" lon="-0.7521230624683116"><ele>497.25</ele><time>2026-03-31T15:06:06Z</time></trkpt><trkpt lat="43.04489717927438" lon="-0.7521339431027442"><ele>492.5</ele><time>2026-03-31T15:06:07Z</time></trkpt><trkpt lat="43.04501087234813" lon="-0.7521304917916918"><ele>487.75</ele><time>2026-03-31T15:06:08Z</time></trkpt><trkpt lat="43.045126362308174" lon="-0.7521168010953194"><ele>483.0</ele><time>2026-03-31T15:06:09Z</time></trkpt><trkpt lat="43.0452454910405" lon="-0.7521099375881305"><ele>483.0</ele><time>2026-03-31T15:06:10Z</time></trkpt><trkpt lat="43.04536413429909" lon="-0.7521116544488482"><ele>482.99999999999994</ele><time>2026-03-31T15:06:11Z</time></trkpt><trkpt lat="43.04547156933441" lon="-0.7521264865696476"><ele>482.99999999999994</ele><time>2026-03-31T15:06:12Z</time></trkpt><trkpt lat="43.04556847573774" lon="-0.7521535575579377"><ele>483.0</ele><time>2026-03-31T15:06:13Z</time></trkpt><trkpt lat="43.04565695148851" lon="-0.7522049220669123"><ele>483.0</ele><time>2026-03-31T15:06:14Z</time></trkpt><trkpt lat="43.04573536157928" lon="-0.752268462488416"><ele>482.25</ele><time>2026-03-31T15:06:15Z</time></trkpt><trkpt lat="43.0458153078969" lon="-0.7523415791386509"><ele>481.5</ele><time>2026-03-31T15:06:16Z</time></trkpt><trkpt lat="43.04590786888388" lon="-0.7524299427943201"><ele>480.75</ele><time>2026-03-31T15:06:17Z</time></trkpt><trkpt lat="43.04601730735708" lon="-0.7524977260602812"><ele>480.0</ele><time>2026-03-31T15:06:18Z</time></trkpt><trkpt lat="43.04613636778847" lon="-0.7525411199152514"><ele>480.0</ele><time>2026-03-31T15:06:19Z</time></trkpt><trkpt lat="43.046255494003304" lon="-0.7525534255371138"><ele>480.0</ele><time>2026-03-31T15:06:20Z</time></trkpt><trkpt lat="43.046367411162386" lon="-0.7525377473213241"><ele>480.0</ele><time>2026-03-31T15:06:21Z</time></trkpt><trkpt lat="43.0464677891786" lon="-0.7525288131721348"><ele>480.0</ele><time>2026-03-31T15:06:22Z</time></trkpt><trkpt lat="43.04656241598114" lon="-0.7525398636424099"><ele>480.0</ele><time>2026-03-31T15:06:23Z</time></trkpt><trkpt lat="43.04665295886585" lon="-0.7525702578370201"><ele>480.6</ele><time>2026-03-31T15:06:24Z</time></trkpt><trkpt lat="43.04674002670622" lon="-0.7526141626233851"><ele>481.2</ele><time>2026-03-31T15:06:25Z</time></trkpt><trkpt lat="43.04682325611178" lon="-0.752667661177043"><ele>481.79999999999995</ele><time>2026-03-31T15:06:26Z</time></trkpt><trkpt lat="43.046903789095545" lon="-0.7527358311228854"><ele>482.4</ele><time>2026-03-31T15:06:27Z</time></trkpt><trkpt lat="43.046978221385224" lon="-0.7528377735012379"><ele>483.0</ele><time>2026-03-31T15:06:28Z</time></trkpt><trkpt lat="43.047037730940914" lon="-0.7529675545393142"><ele>483.0</ele><time>2026-03-31T15:06:29Z</time></trkpt><trkpt lat="43.04707638980956" lon="-0.753118001110593"><ele>483.0</ele><time>2026-03-31T15:06:30Z</time></trkpt><trkpt lat="43.04709548324926" lon="-0.7532776357998058"><ele>483.0</ele><time>2026-03-31T15:06:31Z</time></trkpt><trkpt lat="43.04710380135939" lon="-0.7534398347663981"><ele>483.0</ele><time>2026-03-31T15:06:32Z</time></trkpt><trkpt lat="43.04710498076337" lon="-0.7536040970062979"><ele>484.25</ele><time>2026-03-31T15:06:33Z</time></trkpt><trkpt lat="43.0470986362019" lon="-0.7537718013348929"><ele>485.5</ele><time>2026-03-31T15:06:34Z</time></trkpt><trkpt lat="43.04707978160271" lon="-0.7539435234829811"><ele>486.75</ele><time>2026-03-31T15:06:35Z</time></trkpt><trkpt lat="43.04705544665538" lon="-0.7541177640661562"><ele>488.0</ele><time>2026-03-31T15:06:36Z</time></trkpt><trkpt lat="43.04703892669035" lon="-0.7542893556179413"><ele>487.5</ele><time>2026-03-31T15:06:37Z</time></trkpt><trkpt lat="43.047032644193834" lon="-0.7544559350085895"><ele>487.0</ele><time>2026-03-31T15:06:38Z</time></trkpt><trkpt lat="43.04703894647305" lon="-0.7546177055719265"><ele>486.5</ele><time>2026-03-31T15:06:39Z</time></trkpt><trkpt lat="43.04706382595912" lon="-0.7547724395786752"><ele>486.0</ele><time>2026-03-31T15:06:40Z</time></trkpt><trkpt lat="43.04710982870814" lon="-0.7549175319467867"><ele>486.0</ele><time>2026-03-31T15:06:41Z</time></trkpt><trkpt lat="43.04716183877977" lon="-0.7550629989693424"><ele>486.0</ele><time>2026-03-31T15:06:42Z</time></trkpt><trkpt lat="43.04720604953504" lon="-0.7552223879048988"><ele>486.0</ele><time>2026-03-31T15:06:43Z</time></trkpt><trkpt lat="43.04723998118329" lon="-0.7553917313923719"><ele>486.0</ele><time>2026-03-31T15:06:44Z</time></trkpt><trkpt lat="43.04727144240051" lon="-0.7555622670040429"><ele>485.75</ele><time>2026-03-31T15:06:45Z</time></trkpt><trkpt lat="43.04730730505412" lon="-0.7557313379521801"><ele>485.5</ele><time>2026-03-31T15:06:46Z</time></trkpt><trkpt lat="43.047345127941526" lon="-0.7559012438030099"><ele>485.25</ele><time>2026-03-31T15:06:47Z</time></trkpt><trkpt lat="43.047385822343955" lon="-0.7560732216492798"><ele>485.0</ele><time>2026-03-31T15:06:48Z</time></trkpt><trkpt lat="43.04742672491857" lon="-0.7562445648974723"><ele>479.8</ele><time>2026-03-31T15:06:49Z</time></trkpt><trkpt lat="43.047470724920245" lon="-0.7564016540097814"><ele>474.6</ele><time>2026-03-31T15:06:50Z</time></trkpt><trkpt lat="43.047520835191165" lon="-0.7565419315084193"><ele>469.4</ele><time>2026-03-31T15:06:51Z</time></trkpt><trkpt lat="43.047576693948436" lon="-0.7566693300717892"><ele>464.2</ele><time>2026-03-31T15:06:52Z</time></trkpt><trkpt lat="43.04763571205049" lon="-0.7567851285780152"><ele>459.0</ele><time>2026-03-31T15:06:53Z</time></trkpt><trkpt lat="43.04770104668172" lon="-0.756885601616279"><ele>459.0</ele><time>2026-03-31T15:06:54Z</time></trkpt><trkpt lat="43.04777945363984" lon="-0.7569869108741705"><ele>459.0</ele><time>2026-03-31T15:06:55Z</time></trkpt><trkpt lat="43.0478710685177" lon="-0.7570877878699785"><ele>459.0</ele><time>2026-03-31T15:06:56Z</time></trkpt><trkpt lat="43.04797287059999" lon="-0.7571864512033651"><ele>459.0</ele><time>2026-03-31T15:06:57Z</time></trkpt><trkpt lat="43.048080291840165" lon="-0.7572829092747178"><ele>459.0</ele><time>2026-03-31T15:06:58Z</time></trkpt><trkpt lat="43.04819365399819" lon="-0.7573773154563522"><ele>459.0</ele><time>2026-03-31T15:06:59Z</time></trkpt><trkpt lat="43.048304851617495" lon="-0.7574724376594894"><ele>459.0</ele><time>2026-03-31T15:07:00Z</time></trkpt><trkpt lat="43.04841453139269" lon="-0.7575715524978126"><ele>459.0</ele><time>2026-03-31T15:07:01Z</time></trkpt><trkpt lat="43.04852578224919" lon="-0.7576722483829738"><ele>456.75</ele><time>2026-03-31T15:07:02Z</time></trkpt><trkpt lat="43.04863651420105" lon="-0.7577723035118636"><ele>454.5</ele><time>2026-03-31T15:07:03Z</time></trkpt><trkpt lat="43.04874267065003" lon="-0.7578738804606281"><ele>452.25</ele><time>2026-03-31T15:07:04Z</time></trkpt><trkpt lat="43.048849496198294" lon="-0.7579731771737375"><ele>450.0</ele><time>2026-03-31T15:07:05Z</time></trkpt><trkpt lat="43.048958026122065" lon="-0.758070334452581"><ele>450.0</ele><time>2026-03-31T15:07:06Z</time></trkpt><trkpt lat="43.049066425845986" lon="-0.7581708132037133"><ele>450.0</ele><time>2026-03-31T15:07:07Z</time></trkpt><trkpt lat="43.049173280937524" lon="-0.7582733270526271"><ele>450.0</ele><time>2026-03-31T15:07:08Z</time></trkpt><trkpt lat="43.04928016606102" lon="-0.7583737854442357"><ele>450.0</ele><time>2026-03-31T15:07:09Z</time></trkpt><trkpt lat="43.049385952339144" lon="-0.7584741276216425"><ele>449.25</ele><time>2026-03-31T15:07:10Z</time></trkpt><trkpt lat="43.04949258419281" lon="-0.7585710347242426"><ele>448.5</ele><time>2026-03-31T15:07:11Z</time></trkpt><trkpt lat="43.049601795976656" lon="-0.7586655655430881"><ele>447.75</ele><time>2026-03-31T15:07:12Z</time></trkpt><trkpt lat="43.049710382754284" lon="-0.758761041928949"><ele>447.0</ele><time>2026-03-31T15:07:13Z</time></trkpt><trkpt lat="43.04981471934085" lon="-0.7588612391395128"><ele>447.0</ele><time>2026-03-31T15:07:14Z</time></trkpt><trkpt lat="43.04991793154044" lon="-0.7589609077775473"><ele>447.0</ele><time>2026-03-31T15:07:15Z</time></trkpt><trkpt lat="43.05002261573188" lon="-0.7590597600967306"><ele>447.0</ele><time>2026-03-31T15:07:16Z</time></trkpt><trkpt lat="43.05012448984346" lon="-0.7591604477588768"><ele>447.0</ele><time>2026-03-31T15:07:17Z</time></trkpt><trkpt lat="43.050223792201486" lon="-0.7592550567043207"><ele>446.20000000000005</ele><time>2026-03-31T15:07:18Z</time></trkpt><trkpt lat="43.050318735319664" lon="-0.759341741286038"><ele>445.40000000000003</ele><time>2026-03-31T15:07:19Z</time></trkpt><trkpt lat="43.05040743281608" lon="-0.7594250477727831"><ele>444.59999999999997</ele><time>2026-03-31T15:07:20Z</time></trkpt><trkpt lat="43.05049358575924" lon="-0.7595068785514084"><ele>443.79999999999995</ele><time>2026-03-31T15:07:21Z</time></trkpt><trkpt lat="43.05057796391646" lon="-0.7595886106178857"><ele>443.0</ele><time>2026-03-31T15:07:22Z</time></trkpt><trkpt lat="43.05066332232972" lon="-0.759672661798286"><ele>443.0</ele><time>2026-03-31T15:07:23Z</time></trkpt><trkpt lat="43.05075512017887" lon="-0.7597579214333744"><ele>443.0</ele><time>2026-03-31T15:07:24Z</time></trkpt><trkpt lat="43.05085159474224" lon="-0.7598503350063511"><ele>443.0</ele><time>2026-03-31T15:07:25Z</time></trkpt><trkpt lat="43.05095300557286" lon="-0.7599520534593166"><ele>443.0</ele><time>2026-03-31T15:07:26Z</time></trkpt><trkpt lat="43.051058684727806" lon="-0.7600545242797317"><ele>443.5</ele><time>2026-03-31T15:07:27Z</time></trkpt><trkpt lat="43.05116444450282" lon="-0.7601557481777383"><ele>444.0</ele><time>2026-03-31T15:07:28Z</time></trkpt><trkpt lat="43.05127257161247" lon="-0.7602621578701299"><ele>444.5</ele><time>2026-03-31T15:07:29Z</time></trkpt><trkpt lat="43.05138360830813" lon="-0.760366959231339"><ele>445.0</ele><time>2026-03-31T15:07:30Z</time></trkpt><trkpt lat="43.051501281201666" lon="-0.7604672480640668"><ele>445.25</ele><time>2026-03-31T15:07:31Z</time></trkpt><trkpt lat="43.05163114018082" lon="-0.7605413711347958"><ele>445.5</ele><time>2026-03-31T15:07:32Z</time></trkpt><trkpt lat="43.05177372644979" lon="-0.7605842193592891"><ele>445.75</ele><time>2026-03-31T15:07:33Z</time></trkpt><trkpt lat="43.05192162115026" lon="-0.7605795154745033"><ele>446.0</ele><time>2026-03-31T15:07:34Z</time></trkpt><trkpt lat="43.052069657777515" lon="-0.7605312300384696"><ele>446.0</ele><time>2026-03-31T15:07:35Z</time></trkpt><trkpt lat="43.052209379365266" lon="-0.7604560446755704"><ele>446.0</ele><time>2026-03-31T15:07:36Z</time></trkpt><trkpt lat="43.052344121801184" lon="-0.760373872969452"><ele>446.0</ele><time>2026-03-31T15:07:37Z</time></trkpt><trkpt lat="43.052480101907435" lon="-0.7603042887470187"><ele>446.0</ele><time>2026-03-31T15:07:38Z</time></trkpt><trkpt lat="43.05262378094438" lon="-0.760255780340941"><ele>444.0</ele><time>2026-03-31T15:07:39Z</time></trkpt><trkpt lat="43.05277080666721" lon="-0.7602199266278475"><ele>442.0</ele><time>2026-03-31T15:07:40Z</time></trkpt><trkpt lat="43.05291692581932" lon="-0.7601867106112898"><ele>440.0</ele><time>2026-03-31T15:07:41Z</time></trkpt><trkpt lat="43.05306357444868" lon="-0.7601642181566688"><ele>438.0</ele><time>2026-03-31T15:07:42Z</time></trkpt><trkpt lat="43.05321191536709" lon="-0.7601506922020351"><ele>437.75</ele><time>2026-03-31T15:07:43Z</time></trkpt><trkpt lat="43.05335861609669" lon="-0.7601444991172455"><ele>437.5</ele><time>2026-03-31T15:07:44Z</time></trkpt><trkpt lat="43.053503791484715" lon="-0.7601471617871507"><ele>437.25</ele><time>2026-03-31T15:07:45Z</time></trkpt><trkpt lat="43.05364685105138" lon="-0.7601596088992638"><ele>437.0</ele><time>2026-03-31T15:07:46Z</time></trkpt><trkpt lat="43.053792935862305" lon="-0.7601636783582678"><ele>437.0</ele><time>2026-03-31T15:07:47Z</time></trkpt><trkpt lat="43.053937359124255" lon="-0.7601669345302583"><ele>437.0</ele><time>2026-03-31T15:07:48Z</time></trkpt><trkpt lat="43.05408338219476" lon="-0.7601747058215736"><ele>437.0</ele><time>2026-03-31T15:07:49Z</time></trkpt><trkpt lat="43.054229542738845" lon="-0.7601869581135903"><ele>437.0</ele><time>2026-03-31T15:07:50Z</time></trkpt><trkpt lat="43.05437358362054" lon="-0.7601859302188334"><ele>436.0</ele><time>2026-03-31T15:07:51Z</time></trkpt><trkpt lat="43.05451403915578" lon="-0.7601603126682687"><ele>435.0</ele><time>2026-03-31T15:07:52Z</time></trkpt><trkpt lat="43.05464680937279" lon="-0.7601053473158415"><ele>434.0</ele><time>2026-03-31T15:07:53Z</time></trkpt><trkpt lat="43.05475755508581" lon="-0.7600026196236632"><ele>433.0</ele><time>2026-03-31T15:07:54Z</time></trkpt><trkpt lat="43.05486946497431" lon="-0.759914929862088"><ele>436.25</ele><time>2026-03-31T15:07:55Z</time></trkpt><trkpt lat="43.05496748238694" lon="-0.7598124389187983"><ele>439.5</ele><time>2026-03-31T15:07:56Z</time></trkpt><trkpt lat="43.05505639174981" lon="-0.7597065763887059"><ele>442.75</ele><time>2026-03-31T15:07:57Z</time></trkpt><trkpt lat="43.055133631031254" lon="-0.7595995900622411"><ele>446.0</ele><time>2026-03-31T15:07:58Z</time></trkpt><trkpt lat="43.055224522542765" lon="-0.7595089627934047"><ele>446.0</ele><time>2026-03-31T15:07:59Z</time></trkpt><trkpt lat="43.05532778355574" lon="-0.7594141060244134"><ele>446.0</ele><time>2026-03-31T15:08:00Z</time></trkpt><trkpt lat="43.055450204971926" lon="-0.7593351014407602"><ele>446.0</ele><time>2026-03-31T15:08:01Z</time></trkpt><trkpt lat="43.055582015695684" lon="-0.7592794717242811"><ele>446.0</ele><time>2026-03-31T15:08:02Z</time></trkpt><trkpt lat="43.055740229267535" lon="-0.7591991709267946"><ele>446.0</ele><time>2026-03-31T15:08:03Z</time></trkpt><trkpt lat="43.055925211205285" lon="-0.7591386226691061"><ele>446.0</ele><time>2026-03-31T15:08:04Z</time></trkpt><trkpt lat="43.056116517986375" lon="-0.7591037110561483"><ele>446.0</ele><time>2026-03-31T15:08:05Z</time></trkpt><trkpt lat="43.0563146761485" lon="-0.7590846395209923"><ele>446.0</ele><time>2026-03-31T15:08:06Z</time></trkpt><trkpt lat="43.05652413963466" lon="-0.7590757730272722"><ele>446.0</ele><time>2026-03-31T15:08:07Z</time></trkpt><trkpt lat="43.056732925223244" lon="-0.7590632823544307"><ele>446.0</ele><time>2026-03-31T15:08:08Z</time></trkpt><trkpt lat="43.05694050694161" lon="-0.759026768139552"><ele>446.3333333333333</ele><time>2026-03-31T15:08:09Z</time></trkpt><trkpt lat="43.05713054467832" lon="-0.7589264785489542"><ele>446.66666666666663</ele><time>2026-03-31T15:08:10Z</time></trkpt><trkpt lat="43.057311491670646" lon="-0.7588693589310136"><ele>447.0</ele><time>2026-03-31T15:08:11Z</time></trkpt><trkpt lat="43.057478176501235" lon="-0.7588066056941409"><ele>444.0</ele><time>2026-03-31T15:08:12Z</time></trkpt><trkpt lat="43.05763921474894" lon="-0.7587766472748692"><ele>441.0</ele><time>2026-03-31T15:08:13Z</time></trkpt><trkpt lat="43.0577898345536" lon="-0.7587500933439807"><ele>438.0</ele><time>2026-03-31T15:08:14Z</time></trkpt><trkpt lat="43.05792816974162" lon="-0.7586873725492737"><ele>438.0</ele><time>2026-03-31T15:08:15Z</time></trkpt><trkpt lat="43.0580305204442" lon="-0.758586040137312"><ele>438.0</ele><time>2026-03-31T15:08:16Z</time></trkpt><trkpt lat="43.058108395980966" lon="-0.7584426203063892"><ele>438.0</ele><time>2026-03-31T15:08:17Z</time></trkpt><trkpt lat="43.05821958976387" lon="-0.7583350641513293"><ele>438.0</ele><time>2026-03-31T15:08:18Z</time></trkpt><trkpt lat="43.05834649198418" lon="-0.7582546036574757"><ele>437.66666666666663</ele><time>2026-03-31T15:08:19Z</time></trkpt><trkpt lat="43.0584918821162" lon="-0.758236255851963"><ele>437.3333333333333</ele><time>2026-03-31T15:08:20Z</time></trkpt><trkpt lat="43.05864800091931" lon="-0.7582774934734827"><ele>437.0</ele><time>2026-03-31T15:08:21Z</time></trkpt><trkpt lat="43.058816698411235" lon="-0.7583049830443448"><ele>437.0</ele><time>2026-03-31T15:08:22Z</time></trkpt><trkpt lat="43.058996419775774" lon="-0.7583208325492595"><ele>437.0</ele><time>2026-03-31T15:08:23Z</time></trkpt><trkpt lat="43.05917995694903" lon="-0.7583038190960186"><ele>437.0</ele><time>2026-03-31T15:08:24Z</time></trkpt><trkpt lat="43.059369038254424" lon="-0.7582623715792627"><ele>435.3333333333333</ele><time>2026-03-31T15:08:25Z</time></trkpt><trkpt lat="43.05955849657858" lon="-0.7582008423125173"><ele>433.66666666666663</ele><time>2026-03-31T15:08:26Z</time></trkpt><trkpt lat="43.05975020747551" lon="-0.7581177213197635"><ele>432.0</ele><time>2026-03-31T15:08:27Z</time></trkpt><trkpt lat="43.05994151827567" lon="-0.7580210035672988"><ele>428.33333333333337</ele><time>2026-03-31T15:08:28Z</time></trkpt><trkpt lat="43.06013627031011" lon="-0.7579197772718339"><ele>424.6666666666667</ele><time>2026-03-31T15:08:29Z</time></trkpt><trkpt lat="43.06033128559977" lon="-0.7578153371565213"><ele>421.0</ele><time>2026-03-31T15:08:30Z</time></trkpt><trkpt lat="43.0605239626726" lon="-0.7577020321713631"><ele>424.0</ele><time>2026-03-31T15:08:31Z</time></trkpt><trkpt lat="43.0607141511297" lon="-0.7575878542326219"><ele>427.0</ele><time>2026-03-31T15:08:32Z</time></trkpt><trkpt lat="43.06090456419424" lon="-0.7574846386879371"><ele>430.0</ele><time>2026-03-31T15:08:33Z</time></trkpt><trkpt lat="43.0610973738645" lon="-0.7574165113156403"><ele>430.0</ele><time>2026-03-31T15:08:34Z</time></trkpt><trkpt lat="43.06128632518667" lon="-0.7573779870478613"><ele>430.0</ele><time>2026-03-31T15:08:35Z</time></trkpt><trkpt lat="43.061476031228" lon="-0.75735384888265"><ele>430.0</ele><time>2026-03-31T15:08:36Z</time></trkpt><trkpt lat="43.06166262208444" lon="-0.757346673152499"><ele>427.6666666666667</ele><time>2026-03-31T15:08:37Z</time></trkpt><trkpt lat="43.06184832101816" lon="-0.757373433026397"><ele>425.33333333333337</ele><time>2026-03-31T15:08:38Z</time></trkpt><trkpt lat="43.062023550723" lon="-0.7574210927901146"><ele>423.0</ele><time>2026-03-31T15:08:39Z</time></trkpt><trkpt lat="43.0621870211939" lon="-0.7574654661749246"><ele>423.0</ele><time>2026-03-31T15:08:40Z</time></trkpt><trkpt lat="43.062343065783764" lon="-0.7574786884478143"><ele>423.0</ele><time>2026-03-31T15:08:41Z</time></trkpt><trkpt lat="43.062483687913335" lon="-0.757445562952893"><ele>423.0</ele><time>2026-03-31T15:08:42Z</time></trkpt><trkpt lat="43.06261662409745" lon="-0.7573773324908663"><ele>423.0</ele><time>2026-03-31T15:08:43Z</time></trkpt><trkpt lat="43.06275450751752" lon="-0.757260353474925"><ele>420.33333333333337</ele><time>2026-03-31T15:08:44Z</time></trkpt><trkpt lat="43.06288035035611" lon="-0.7570814815861137"><ele>417.6666666666667</ele><time>2026-03-31T15:08:45Z</time></trkpt><trkpt lat="43.06303347437068" lon="-0.7569161540012519"><ele>415.0</ele><time>2026-03-31T15:08:46Z</time></trkpt><trkpt lat="43.06317578503284" lon="-0.7567268347999914"><ele>413.33333333333337</ele><time>2026-03-31T15:08:47Z</time></trkpt><trkpt lat="43.06332444525542" lon="-0.756540334561741"><ele>411.66666666666663</ele><time>2026-03-31T15:08:48Z</time></trkpt><trkpt lat="43.063475569458106" lon="-0.7563588766493122"><ele>410.0</ele><time>2026-03-31T15:08:49Z</time></trkpt><trkpt lat="43.06362982803969" lon="-0.7561725592630094"><ele>415.66666666666663</ele><time>2026-03-31T15:08:50Z</time></trkpt><trkpt lat="43.063779983551946" lon="-0.7559864412284125"><ele>421.33333333333337</ele><time>2026-03-31T15:08:51Z</time></trkpt><trkpt lat="43.06393122798924" lon="-0.7558044866811408"><ele>427.0</ele><time>2026-03-31T15:08:52Z</time></trkpt><trkpt lat="43.06408105907749" lon="-0.7556251211462732"><ele>427.0</ele><time>2026-03-31T15:08:53Z</time></trkpt><trkpt lat="43.06422767318633" lon="-0.7554436529441131"><ele>427.0</ele><time>2026-03-31T15:08:54Z</time></trkpt><trkpt lat="43.06437258958629" lon="-0.7552613288676631"><ele>427.0</ele><time>2026-03-31T15:08:55Z</time></trkpt><trkpt lat="43.06451718045423" lon="-0.7550807431875299"><ele>427.0</ele><time>2026-03-31T15:08:56Z</time></trkpt><trkpt lat="43.064725444222965" lon="-0.7548723900326748"><ele>427.0</ele><time>2026-03-31T15:08:57Z</time></trkpt><trkpt lat="43.06489573102332" lon="-0.7547004682572981"><ele>423.33333333333337</ele><time>2026-03-31T15:08:58Z</time></trkpt><trkpt lat="43.06507064607958" lon="-0.7545359809954466"><ele>419.66666666666663</ele><time>2026-03-31T15:08:59Z</time></trkpt><trkpt lat="43.065240108093164" lon="-0.7543664799559172"><ele>416.0</ele><time>2026-03-31T15:09:00Z</time></trkpt><trkpt lat="43.06539832314228" lon="-0.7541844201778797"><ele>416.0</ele><time>2026-03-31T15:09:01Z</time></trkpt><trkpt lat="43.0655414663645" lon="-0.7539844087248241"><ele>416.0</ele><time>2026-03-31T15:09:02Z</time></trkpt><trkpt lat="43.065678640512076" lon="-0.7537819598801105"><ele>416.0</ele><time>2026-03-31T15:09:03Z</time></trkpt><trkpt lat="43.065828634472496" lon="-0.7535980517140851"><ele>416.0</ele><time>2026-03-31T15:09:04Z</time></trkpt><trkpt lat="43.06599990233817" lon="-0.7534456918272904"><ele>416.0</ele><time>2026-03-31T15:09:05Z</time></trkpt><trkpt lat="43.066181316209494" lon="-0.7533300725478627"><ele>416.0</ele><time>2026-03-31T15:09:06Z</time></trkpt><trkpt lat="43.066366058682966" lon="-0.7532261022117301"><ele>416.0</ele><time>2026-03-31T15:09:07Z</time></trkpt><trkpt lat="43.06654700804637" lon="-0.7531081536684125"><ele>416.0</ele><time>2026-03-31T15:09:08Z</time></trkpt><trkpt lat="43.06671451485163" lon="-0.7529667742837133"><ele>416.0</ele><time>2026-03-31T15:09:09Z</time></trkpt><trkpt lat="43.06687178931208" lon="-0.7528082623807026"><ele>414.0</ele><time>2026-03-31T15:09:10Z</time></trkpt><trkpt lat="43.06701161473667" lon="-0.7526226316152764"><ele>412.0</ele><time>2026-03-31T15:09:11Z</time></trkpt><trkpt lat="43.06713671535005" lon="-0.7523980403931255"><ele>410.0</ele><time>2026-03-31T15:09:12Z</time></trkpt><trkpt lat="43.067256004002516" lon="-0.7521525000521644"><ele>410.0</ele><time>2026-03-31T15:09:13Z</time></trkpt><trkpt lat="43.06737059637232" lon="-0.7519037941496339"><ele>410.0</ele><time>2026-03-31T15:09:14Z</time></trkpt><trkpt lat="43.067486425279114" lon="-0.751654890141668"><ele>410.0</ele><time>2026-03-31T15:09:15Z</time></trkpt><trkpt lat="43.0676041239723" lon="-0.7514126352331897"><ele>405.66666666666663</ele><time>2026-03-31T15:09:16Z</time></trkpt><trkpt lat="43.06771747090389" lon="-0.751174805167746"><ele>401.33333333333337</ele><time>2026-03-31T15:09:17Z</time></trkpt><trkpt lat="43.06782795377295" lon="-0.7509341126070211"><ele>397.0</ele><time>2026-03-31T15:09:18Z</time></trkpt><trkpt lat="43.06793623740373" lon="-0.750697040460674"><ele>396.6666666666667</ele><time>2026-03-31T15:09:19Z</time></trkpt><trkpt lat="43.068037404839366" lon="-0.7504540777516377"><ele>396.33333333333337</ele><time>2026-03-31T15:09:20Z</time></trkpt><trkpt lat="43.06813706870668" lon="-0.7502042931339985"><ele>396.0</ele><time>2026-03-31T15:09:21Z</time></trkpt><trkpt lat="43.06823288003143" lon="-0.7499507702454141"><ele>395.0</ele><time>2026-03-31T15:09:22Z</time></trkpt><trkpt lat="43.06832565995739" lon="-0.7496931808954175"><ele>394.0</ele><time>2026-03-31T15:09:23Z</time></trkpt><trkpt lat="43.068420414235725" lon="-0.7494371985359858"><ele>393.0</ele><time>2026-03-31T15:09:24Z</time></trkpt><trkpt lat="43.068518197716514" lon="-0.7491812148451267"><ele>393.0</ele><time>2026-03-31T15:09:25Z</time></trkpt><trkpt lat="43.06861732330044" lon="-0.7489263749707529"><ele>393.0</ele><time>2026-03-31T15:09:26Z</time></trkpt><trkpt lat="43.06872353605298" lon="-0.7486774133591633"><ele>393.0</ele><time>2026-03-31T15:09:27Z</time></trkpt><trkpt lat="43.068841784626834" lon="-0.7484354992820431"><ele>394.33333333333337</ele><time>2026-03-31T15:09:28Z</time></trkpt><trkpt lat="43.06896521963876" lon="-0.7481955583067303"><ele>395.6666666666667</ele><time>2026-03-31T15:09:29Z</time></trkpt><trkpt lat="43.0690904611465" lon="-0.7479614751712741"><ele>397.0</ele><time>2026-03-31T15:09:30Z</time></trkpt><trkpt lat="43.0692204415273" lon="-0.7477253854875382"><ele>395.6666666666667</ele><time>2026-03-31T15:09:31Z</time></trkpt><trkpt lat="43.06935379157438" lon="-0.7474943484894547"><ele>394.33333333333337</ele><time>2026-03-31T15:09:32Z</time></trkpt><trkpt lat="43.069493310737315" lon="-0.74727521614958"><ele>393.0</ele><time>2026-03-31T15:09:33Z</time></trkpt><trkpt lat="43.06963844287623" lon="-0.7470706716680853"><ele>391.0</ele><time>2026-03-31T15:09:34Z</time></trkpt><trkpt lat="43.069788106458724" lon="-0.7468696708575191"><ele>389.0</ele><time>2026-03-31T15:09:35Z</time></trkpt><trkpt lat="43.06993727572162" lon="-0.7466710806492828"><ele>387.0</ele><time>2026-03-31T15:09:36Z</time></trkpt><trkpt lat="43.070087100751635" lon="-0.7464732499893844"><ele>387.0</ele><time>2026-03-31T15:09:37Z</time></trkpt><trkpt lat="43.07023428897185" lon="-0.7462755255041805"><ele>387.0</ele><time>2026-03-31T15:09:38Z</time></trkpt><trkpt lat="43.07037611145474" lon="-0.7460843674686671"><ele>387.0</ele><time>2026-03-31T15:09:39Z</time></trkpt><trkpt lat="43.070513059098765" lon="-0.7459000629152617"><ele>387.33333333333337</ele><time>2026-03-31T15:09:40Z</time></trkpt><trkpt lat="43.07064331742771" lon="-0.7457254395103067"><ele>387.6666666666667</ele><time>2026-03-31T15:09:41Z</time></trkpt><trkpt lat="43.07077443757695" lon="-0.7455697602993075"><ele>388.0</ele><time>2026-03-31T15:09:42Z</time></trkpt><trkpt lat="43.07090973603198" lon="-0.745428336037476"><ele>388.0</ele><time>2026-03-31T15:09:43Z</time></trkpt><trkpt lat="43.07107604847141" lon="-0.7453650246345171"><ele>388.0</ele><time>2026-03-31T15:09:44Z</time></trkpt><trkpt lat="43.07125595040808" lon="-0.7452940265710666"><ele>388.0</ele><time>2026-03-31T15:09:45Z</time></trkpt><trkpt lat="43.071431621054195" lon="-0.7451824357070662"><ele>389.0</ele><time>2026-03-31T15:09:46Z</time></trkpt><trkpt lat="43.07160697766179" lon="-0.7450708204964032"><ele>390.0</ele><time>2026-03-31T15:09:47Z</time></trkpt><trkpt lat="43.07177742790205" lon="-0.7449549053414409"><ele>391.0</ele><time>2026-03-31T15:09:48Z</time></trkpt><trkpt lat="43.07194759784357" lon="-0.7448477237635176"><ele>391.0</ele><time>2026-03-31T15:09:49Z</time></trkpt><trkpt lat="43.07209995629533" lon="-0.744697922223556"><ele>391.0</ele><time>2026-03-31T15:09:50Z</time></trkpt><trkpt lat="43.07225481250232" lon="-0.744529604539079"><ele>391.0</ele><time>2026-03-31T15:09:51Z</time></trkpt><trkpt lat="43.07241583727931" lon="-0.7443165935688004"><ele>391.6666666666667</ele><time>2026-03-31T15:09:52Z</time></trkpt><trkpt lat="43.07257401424442" lon="-0.7441348864171493"><ele>392.33333333333337</ele><time>2026-03-31T15:09:53Z</time></trkpt><trkpt lat="43.07274630615828" lon="-0.7439587351043766"><ele>393.0</ele><time>2026-03-31T15:09:54Z</time></trkpt><trkpt lat="43.07289973103004" lon="-0.7437680734560633"><ele>393.0</ele><time>2026-03-31T15:09:55Z</time></trkpt><trkpt lat="43.073049103353355" lon="-0.743573130622795"><ele>393.0</ele><time>2026-03-31T15:09:56Z</time></trkpt><trkpt lat="43.0731757836345" lon="-0.7433697926483736"><ele>393.0</ele><time>2026-03-31T15:09:57Z</time></trkpt><trkpt lat="43.07326060935208" lon="-0.7431308417518717"><ele>395.66666666666663</ele><time>2026-03-31T15:09:58Z</time></trkpt><trkpt lat="43.073365367226494" lon="-0.742892674943978"><ele>398.3333333333333</ele><time>2026-03-31T15:09:59Z</time></trkpt><trkpt lat="43.0734816074044" lon="-0.7426482534165634"><ele>401.0</ele><time>2026-03-31T15:10:00Z</time></trkpt><trkpt lat="43.07362775005356" lon="-0.7424226667339118"><ele>401.0</ele><time>2026-03-31T15:10:01Z</time></trkpt><trkpt lat="43.07376357451701" lon="-0.742190907886209"><ele>401.0</ele><time>2026-03-31T15:10:02Z</time></trkpt><trkpt lat="43.07388798271174" lon="-0.7419497462322968"><ele>401.0</ele><time>2026-03-31T15:10:03Z</time></trkpt><trkpt lat="43.07403521321265" lon="-0.7417394288517435"><ele>395.0</ele><time>2026-03-31T15:10:04Z</time></trkpt><trkpt lat="43.07420068727047" lon="-0.7415503548565993"><ele>389.0</ele><time>2026-03-31T15:10:05Z</time></trkpt><trkpt lat="43.07435818557966" lon="-0.7413523244289515"><ele>383.0</ele><time>2026-03-31T15:10:06Z</time></trkpt><trkpt lat="43.07450808873049" lon="-0.7411511113201518"><ele>391.0</ele><time>2026-03-31T15:10:07Z</time></trkpt><trkpt lat="43.07462896912812" lon="-0.7409244329601359"><ele>399.0</ele><time>2026-03-31T15:10:08Z</time></trkpt><trkpt lat="43.074759115213695" lon="-0.7407213808532123"><ele>407.0</ele><time>2026-03-31T15:10:09Z</time></trkpt><trkpt lat="43.074890556305796" lon="-0.7405454910558337"><ele>400.3333333333333</ele><time>2026-03-31T15:10:10Z</time></trkpt><trkpt lat="43.074991740131175" lon="-0.7403284219140804"><ele>393.66666666666663</ele><time>2026-03-31T15:10:11Z</time></trkpt><trkpt lat="43.07509702403368" lon="-0.740079686258656"><ele>387.0</ele><time>2026-03-31T15:10:12Z</time></trkpt><trkpt lat="43.07518745506547" lon="-0.7398232012956156"><ele>387.0</ele><time>2026-03-31T15:10:13Z</time></trkpt><trkpt lat="43.07529736169639" lon="-0.7395775864784271"><ele>387.0</ele><time>2026-03-31T15:10:14Z</time></trkpt><trkpt lat="43.07542706538058" lon="-0.7393507112049251"><ele>387.0</ele><time>2026-03-31T15:10:15Z</time></trkpt><trkpt lat="43.075547427341746" lon="-0.7391111834762814"><ele>388.0</ele><time>2026-03-31T15:10:16Z</time></trkpt><trkpt lat="43.075671023165135" lon="-0.7388919799857746"><ele>389.0</ele><time>2026-03-31T15:10:17Z</time></trkpt><trkpt lat="43.0758112713819" lon="-0.7386974845166595"><ele>390.0</ele><time>2026-03-31T15:10:18Z</time></trkpt><trkpt lat="43.07595705521525" lon="-0.7385073089939299"><ele>390.0</ele><time>2026-03-31T15:10:19Z</time></trkpt><trkpt lat="43.07609964442664" lon="-0.7383224973731402"><ele>390.0</ele><time>2026-03-31T15:10:20Z</time></trkpt><trkpt lat="43.07623503755476" lon="-0.7381401233658749"><ele>390.0</ele><time>2026-03-31T15:10:21Z</time></trkpt><trkpt lat="43.07635139184283" lon="-0.7379463783638746"><ele>390.0</ele><time>2026-03-31T15:10:22Z</time></trkpt><trkpt lat="43.076466721685335" lon="-0.7377667579639734"><ele>390.0</ele><time>2026-03-31T15:10:23Z</time></trkpt><trkpt lat="43.0766115241992" lon="-0.7376418337323437"><ele>390.0</ele><time>2026-03-31T15:10:24Z</time></trkpt><trkpt lat="43.076757730919056" lon="-0.737527634537705"><ele>386.0</ele><time>2026-03-31T15:10:25Z</time></trkpt><trkpt lat="43.076934740521295" lon="-0.7374403048496453"><ele>382.0</ele><time>2026-03-31T15:10:26Z</time></trkpt><trkpt lat="43.07710117150164" lon="-0.7372950838064133"><ele>378.0</ele><time>2026-03-31T15:10:27Z</time></trkpt><trkpt lat="43.0772502330289" lon="-0.7371243287936129"><ele>378.0</ele><time>2026-03-31T15:10:28Z</time></trkpt><trkpt lat="43.077375587136096" lon="-0.7369363894412111"><ele>378.0</ele><time>2026-03-31T15:10:29Z</time></trkpt><trkpt lat="43.07747673289928" lon="-0.7367217015129849"><ele>378.0</ele><time>2026-03-31T15:10:30Z</time></trkpt><trkpt lat="43.077583612107794" lon="-0.7364910270573205"><ele>377.3333333333333</ele><time>2026-03-31T15:10:31Z</time></trkpt><trkpt lat="43.077692177695255" lon="-0.736256712809884"><ele>376.66666666666663</ele><time>2026-03-31T15:10:32Z</time></trkpt><trkpt lat="43.07780430232585" lon="-0.7360168842722938"><ele>376.0</ele><time>2026-03-31T15:10:33Z</time></trkpt><trkpt lat="43.077931320369686" lon="-0.7357566814756165"><ele>376.0</ele><time>2026-03-31T15:10:34Z</time></trkpt><trkpt lat="43.0780755066247" lon="-0.7355176144951054"><ele>376.0</ele><time>2026-03-31T15:10:35Z</time></trkpt><trkpt lat="43.07823782948869" lon="-0.7353068224393513"><ele>370.5</ele><time>2026-03-31T15:10:36Z</time></trkpt><trkpt lat="43.07839250914837" lon="-0.7350807552517671"><ele>365.0</ele><time>2026-03-31T15:10:37Z</time></trkpt><trkpt lat="43.078532960017576" lon="-0.734842236727675"><ele>365.0</ele><time>2026-03-31T15:10:38Z</time></trkpt><trkpt lat="43.07868933160192" lon="-0.7346180081940479"><ele>365.0</ele><time>2026-03-31T15:10:39Z</time></trkpt><trkpt lat="43.07884142832038" lon="-0.7344022660108951"><ele>365.0</ele><time>2026-03-31T15:10:40Z</time></trkpt><trkpt lat="43.07899415819977" lon="-0.7341885326711509"><ele>364.6666666666667</ele><time>2026-03-31T15:10:41Z</time></trkpt><trkpt lat="43.079148191261964" lon="-0.7339729756539795"><ele>364.3333333333333</ele><time>2026-03-31T15:10:42Z</time></trkpt><trkpt lat="43.07929404078082" lon="-0.7337688707918464"><ele>364.0</ele><time>2026-03-31T15:10:43Z</time></trkpt><trkpt lat="43.07944241324756" lon="-0.7335612353848181"><ele>364.3333333333333</ele><time>2026-03-31T15:10:44Z</time></trkpt><trkpt lat="43.079584942665264" lon="-0.733361776891546"><ele>364.6666666666667</ele><time>2026-03-31T15:10:45Z</time></trkpt><trkpt lat="43.07972151726336" lon="-0.7331706516431449"><ele>365.0</ele><time>2026-03-31T15:10:46Z</time></trkpt><trkpt lat="43.079840108021855" lon="-0.7330018333123929"><ele>364.0</ele><time>2026-03-31T15:10:47Z</time></trkpt><trkpt lat="43.07993989467539" lon="-0.7328385280759345"><ele>363.0</ele><time>2026-03-31T15:10:48Z</time></trkpt><trkpt lat="43.0800062584099" lon="-0.7326587023845234"><ele>362.0</ele><time>2026-03-31T15:10:49Z</time></trkpt><trkpt lat="43.08007928387196" lon="-0.732440356045045"><ele>362.0</ele><time>2026-03-31T15:10:50Z</time></trkpt><trkpt lat="43.080192809957424" lon="-0.7322274284919237"><ele>362.0</ele><time>2026-03-31T15:10:51Z</time></trkpt><trkpt lat="43.08030878324905" lon="-0.7320057920019759"><ele>362.0</ele><time>2026-03-31T15:10:52Z</time></trkpt><trkpt lat="43.08042286837162" lon="-0.7317762004033174"><ele>362.0</ele><time>2026-03-31T15:10:53Z</time></trkpt><trkpt lat="43.08057581467242" lon="-0.7315933364363651"><ele>362.0</ele><time>2026-03-31T15:10:54Z</time></trkpt><trkpt lat="43.08072695437378" lon="-0.7314105651696738"><ele>362.0</ele><time>2026-03-31T15:10:55Z</time></trkpt><trkpt lat="43.080856623483804" lon="-0.7312037321512698"><ele>360.0</ele><time>2026-03-31T15:10:56Z</time></trkpt><trkpt lat="43.0809863098564" lon="-0.7309937549281946"><ele>358.0</ele><time>2026-03-31T15:10:57Z</time></trkpt><trkpt lat="43.08111483968015" lon="-0.7307823309577421"><ele>356.0</ele><time>2026-03-31T15:10:58Z</time></trkpt><trkpt lat="43.08125381337162" lon="-0.7306085577702564"><ele>356.0</ele><time>2026-03-31T15:10:59Z</time></trkpt><trkpt lat="43.0813919444608" lon="-0.7304631909674547"><ele>356.0</ele><time>2026-03-31T15:11:00Z</time></trkpt><trkpt lat="43.081527350506725" lon="-0.7303253476925845"><ele>356.0</ele><time>2026-03-31T15:11:01Z</time></trkpt><trkpt lat="43.08165664168069" lon="-0.7301610676188791"><ele>355.33333333333337</ele><time>2026-03-31T15:11:02Z</time></trkpt><trkpt lat="43.081787940709646" lon="-0.7299572961190933"><ele>354.6666666666667</ele><time>2026-03-31T15:11:03Z</time></trkpt><trkpt lat="43.08190983472189" lon="-0.7297203551594639"><ele>354.0</ele><time>2026-03-31T15:11:04Z</time></trkpt><trkpt lat="43.08203196585556" lon="-0.7294592503246178"><ele>353.3333333333333</ele><time>2026-03-31T15:11:05Z</time></trkpt><trkpt lat="43.08215254247184" lon="-0.7292110989074531"><ele>352.66666666666663</ele><time>2026-03-31T15:11:06Z</time></trkpt><trkpt lat="43.082269316998214" lon="-0.7289667254266523"><ele>352.0</ele><time>2026-03-31T15:11:07Z</time></trkpt><trkpt lat="43.082381911582225" lon="-0.72873018129726"><ele>351.66666666666663</ele><time>2026-03-31T15:11:08Z</time></trkpt><trkpt lat="43.08249124235519" lon="-0.7285004941956454"><ele>351.3333333333333</ele><time>2026-03-31T15:11:09Z</time></trkpt><trkpt lat="43.08261372311653" lon="-0.7282798134889987"><ele>351.0</ele><time>2026-03-31T15:11:10Z</time></trkpt><trkpt lat="43.082723167640744" lon="-0.7280558303345046"><ele>351.0</ele><time>2026-03-31T15:11:11Z</time></trkpt><trkpt lat="43.08281484819957" lon="-0.727826676538728"><ele>351.0</ele><time>2026-03-31T15:11:12Z</time></trkpt><trkpt lat="43.08290660128969" lon="-0.727631401702978"><ele>351.0</ele><time>2026-03-31T15:11:13Z</time></trkpt><trkpt lat="43.08298164236813" lon="-0.7274616550002333"><ele>350.75</ele><time>2026-03-31T15:11:14Z</time></trkpt><trkpt lat="43.083039484532186" lon="-0.7273042015734548"><ele>350.5</ele><time>2026-03-31T15:11:15Z</time></trkpt><trkpt lat="43.083068564187805" lon="-0.7271436527009958"><ele>350.25</ele><time>2026-03-31T15:11:16Z</time></trkpt><trkpt lat="43.083082837299045" lon="-0.7269574606273627"><ele>350.0</ele><time>2026-03-31T15:11:17Z</time></trkpt><trkpt lat="43.08309376206494" lon="-0.7267357647963507"><ele>350.0</ele><time>2026-03-31T15:11:18Z</time></trkpt><trkpt lat="43.08313896482034" lon="-0.7265049011146286"><ele>350.0</ele><time>2026-03-31T15:11:19Z</time></trkpt><trkpt lat="43.083181153633184" lon="-0.726293346571385"><ele>350.0</ele><time>2026-03-31T15:11:20Z</time></trkpt><trkpt lat="43.08324418858733" lon="-0.7260940449483028"><ele>350.0</ele><time>2026-03-31T15:11:21Z</time></trkpt><trkpt lat="43.083327586594606" lon="-0.7258810111129083"><ele>350.0</ele><time>2026-03-31T15:11:22Z</time></trkpt><trkpt lat="43.08342262356753" lon="-0.7256721759100989"><ele>350.0</ele><time>2026-03-31T15:11:23Z</time></trkpt><trkpt lat="43.08349847928392" lon="-0.7254515510336863"><ele>350.0</ele><time>2026-03-31T15:11:24Z</time></trkpt><trkpt lat="43.08358501325393" lon="-0.7252472770044389"><ele>350.0</ele><time>2026-03-31T15:11:25Z</time></trkpt><trkpt lat="43.08366255796478" lon="-0.7250507400510783"><ele>350.0</ele><time>2026-03-31T15:11:26Z</time></trkpt><trkpt lat="43.08370536912411" lon="-0.7248440501508523"><ele>349.33333333333337</ele><time>2026-03-31T15:11:27Z</time></trkpt><trkpt lat="43.083748211279016" lon="-0.724630434527944"><ele>348.6666666666667</ele><time>2026-03-31T15:11:28Z</time></trkpt><trkpt lat="43.08378955047193" lon="-0.724424815319507"><ele>348.0</ele><time>2026-03-31T15:11:29Z</time></trkpt><trkpt lat="43.083828227800275" lon="-0.7242324359598138"><ele>347.5</ele><time>2026-03-31T15:11:30Z</time></trkpt><trkpt lat="43.08386428514932" lon="-0.724053088477949"><ele>347.0</ele><time>2026-03-31T15:11:31Z</time></trkpt><trkpt lat="43.08390058867234" lon="-0.7238841430949862"><ele>346.5</ele><time>2026-03-31T15:11:32Z</time></trkpt><trkpt lat="43.08394114504298" lon="-0.7237264789885396"><ele>346.0</ele><time>2026-03-31T15:11:33Z</time></trkpt><trkpt lat="43.08400135719647" lon="-0.723590874128127"><ele>346.25</ele><time>2026-03-31T15:11:34Z</time></trkpt><trkpt lat="43.08406441939888" lon="-0.7234661919247697"><ele>346.5</ele><time>2026-03-31T15:11:35Z</time></trkpt><trkpt lat="43.084161178540015" lon="-0.7233673155605619"><ele>346.75</ele><time>2026-03-31T15:11:36Z</time></trkpt><trkpt lat="43.08428595640924" lon="-0.7232931694211373"><ele>347.0</ele><time>2026-03-31T15:11:37Z</time></trkpt><trkpt lat="43.08441429390008" lon="-0.7232019237484173"><ele>346.25</ele><time>2026-03-31T15:11:38Z</time></trkpt><trkpt lat="43.08454182270103" lon="-0.7231022417812707"><ele>345.5</ele><time>2026-03-31T15:11:39Z</time></trkpt><trkpt lat="43.08464521595958" lon="-0.7229668596086514"><ele>344.75</ele><time>2026-03-31T15:11:40Z</time></trkpt><trkpt lat="43.084737142375054" lon="-0.7228084302655136"><ele>344.0</ele><time>2026-03-31T15:11:41Z</time></trkpt><trkpt lat="43.084827947077514" lon="-0.7226391213078788"><ele>344.0</ele><time>2026-03-31T15:11:42Z</time></trkpt><trkpt lat="43.08492618571732" lon="-0.7224607380676042"><ele>344.0</ele><time>2026-03-31T15:11:43Z</time></trkpt><trkpt lat="43.08502846237159" lon="-0.7222781144252989"><ele>344.0</ele><time>2026-03-31T15:11:44Z</time></trkpt><trkpt lat="43.085154390903305" lon="-0.722118325420511"><ele>343.6666666666667</ele><time>2026-03-31T15:11:45Z</time></trkpt><trkpt lat="43.085272624769836" lon="-0.7219609935532428"><ele>343.3333333333333</ele><time>2026-03-31T15:11:46Z</time></trkpt><trkpt lat="43.085399886888354" lon="-0.7218332045441751"><ele>343.0</ele><time>2026-03-31T15:11:47Z</time></trkpt><trkpt lat="43.08554472987093" lon="-0.7217389095220875"><ele>343.0</ele><time>2026-03-31T15:11:48Z</time></trkpt><trkpt lat="43.085706662155545" lon="-0.7216939053712651"><ele>343.0</ele><time>2026-03-31T15:11:49Z</time></trkpt><trkpt lat="43.0858723793496" lon="-0.721682498748335"><ele>343.0</ele><time>2026-03-31T15:11:50Z</time></trkpt><trkpt lat="43.08603832912957" lon="-0.7216708943148192"><ele>342.3333333333333</ele><time>2026-03-31T15:11:51Z</time></trkpt><trkpt lat="43.086204612997264" lon="-0.7216213599266833"><ele>341.6666666666667</ele><time>2026-03-31T15:11:52Z</time></trkpt><trkpt lat="43.086371811357296" lon="-0.7215618676395736"><ele>341.0</ele><time>2026-03-31T15:11:53Z</time></trkpt><trkpt lat="43.086540470816104" lon="-0.7214837222812774"><ele>340.33333333333337</ele><time>2026-03-31T15:11:54Z</time></trkpt><trkpt lat="43.08670639484815" lon="-0.721399063764746"><ele>339.6666666666667</ele><time>2026-03-31T15:11:55Z</time></trkpt><trkpt lat="43.08687209187401" lon="-0.7213035769993575"><ele>339.0</ele><time>2026-03-31T15:11:56Z</time></trkpt><trkpt lat="43.087036981383385" lon="-0.7212010967551696"><ele>339.0</ele><time>2026-03-31T15:11:57Z</time></trkpt><trkpt lat="43.08720576941219" lon="-0.7210963062335735"><ele>339.0</ele><time>2026-03-31T15:11:58Z</time></trkpt><trkpt lat="43.08737358549687" lon="-0.7209921190318896"><ele>339.0</ele><time>2026-03-31T15:11:59Z</time></trkpt><trkpt lat="43.08754360704514" lon="-0.7208900939959102"><ele>339.3333333333333</ele><time>2026-03-31T15:12:00Z</time></trkpt><trkpt lat="43.0877074160161" lon="-0.7207890906378273"><ele>339.66666666666663</ele><time>2026-03-31T15:12:01Z</time></trkpt><trkpt lat="43.08785525800769" lon="-0.720661017369364"><ele>340.0</ele><time>2026-03-31T15:12:02Z</time></trkpt><trkpt lat="43.088001539323876" lon="-0.7205139994856941"><ele>340.0</ele><time>2026-03-31T15:12:03Z</time></trkpt><trkpt lat="43.08814249429378" lon="-0.7203642128403526"><ele>340.0</ele><time>2026-03-31T15:12:04Z</time></trkpt><trkpt lat="43.088280706049396" lon="-0.7202167211145855"><ele>340.0</ele><time>2026-03-31T15:12:05Z</time></trkpt><trkpt lat="43.08841225850737" lon="-0.7200763344048652"><ele>339.5</ele><time>2026-03-31T15:12:06Z</time></trkpt><trkpt lat="43.088532479605355" lon="-0.7199463672286057"><ele>339.0</ele><time>2026-03-31T15:12:07Z</time></trkpt><trkpt lat="43.08864559923312" lon="-0.7198186213554538"><ele>338.5</ele><time>2026-03-31T15:12:08Z</time></trkpt><trkpt lat="43.088748926077756" lon="-0.7196950768803954"><ele>338.0</ele><time>2026-03-31T15:12:09Z</time></trkpt><trkpt lat="43.08884477589119" lon="-0.7195730732784187"><ele>338.0</ele><time>2026-03-31T15:12:10Z</time></trkpt><trkpt lat="43.08893236801723" lon="-0.7194532780258338"><ele>338.0</ele><time>2026-03-31T15:12:11Z</time></trkpt><trkpt lat="43.08901976793825" lon="-0.7193264506281849"><ele>338.0</ele><time>2026-03-31T15:12:12Z</time></trkpt><trkpt lat="43.089120529912584" lon="-0.719176810039386"><ele>338.0</ele><time>2026-03-31T15:12:13Z</time></trkpt><trkpt lat="43.08922385479089" lon="-0.719016276710583"><ele>337.75</ele><time>2026-03-31T15:12:14Z</time></trkpt><trkpt lat="43.08932041524182" lon="-0.7188694611251343"><ele>337.5</ele><time>2026-03-31T15:12:15Z</time></trkpt><trkpt lat="43.089419442899704" lon="-0.718723424410045"><ele>337.25</ele><time>2026-03-31T15:12:16Z</time></trkpt><trkpt lat="43.08952136059915" lon="-0.7185734892350737"><ele>337.0</ele><time>2026-03-31T15:12:17Z</time></trkpt><trkpt lat="43.089621727548646" lon="-0.7184259947912806"><ele>336.25</ele><time>2026-03-31T15:12:18Z</time></trkpt><trkpt lat="43.089720321016124" lon="-0.7182819827193325"><ele>335.5</ele><time>2026-03-31T15:12:19Z</time></trkpt><trkpt lat="43.08982017992865" lon="-0.7181397020174092"><ele>334.75</ele><time>2026-03-31T15:12:20Z</time></trkpt><trkpt lat="43.08992259671282" lon="-0.7180034177509764"><ele>334.0</ele><time>2026-03-31T15:12:21Z</time></trkpt><trkpt lat="43.090028340499714" lon="-0.7178674139353705"><ele>334.0</ele><time>2026-03-31T15:12:22Z</time></trkpt><trkpt lat="43.09013532213923" lon="-0.717728620143936"><ele>334.0</ele><time>2026-03-31T15:12:23Z</time></trkpt><trkpt lat="43.090252007268944" lon="-0.7175964871653588"><ele>334.0</ele><time>2026-03-31T15:12:24Z</time></trkpt><trkpt lat="43.0903805783127" lon="-0.7174826776516992"><ele>334.0</ele><time>2026-03-31T15:12:25Z</time></trkpt><trkpt lat="43.0905131863404" lon="-0.7173765131661726"><ele>334.0</ele><time>2026-03-31T15:12:26Z</time></trkpt><trkpt lat="43.090649789928534" lon="-0.7172650779011768"><ele>334.0</ele><time>2026-03-31T15:12:27Z</time></trkpt><trkpt lat="43.0907784093681" lon="-0.7171592962013169"><ele>333.5</ele><time>2026-03-31T15:12:28Z</time></trkpt><trkpt lat="43.09090168364412" lon="-0.7170566831468118"><ele>333.0</ele><time>2026-03-31T15:12:29Z</time></trkpt><trkpt lat="43.09101950758701" lon="-0.7169557158451927"><ele>332.5</ele><time>2026-03-31T15:12:30Z</time></trkpt><trkpt lat="43.09113244612879" lon="-0.7168562153766896"><ele>332.0</ele><time>2026-03-31T15:12:31Z</time></trkpt><trkpt lat="43.09123848458029" lon="-0.7167589106836896"><ele>332.0</ele><time>2026-03-31T15:12:32Z</time></trkpt><trkpt lat="43.09132704287805" lon="-0.7166670568815005"><ele>332.0</ele><time>2026-03-31T15:12:33Z</time></trkpt><trkpt lat="43.0914118881872" lon="-0.7165735884010521"><ele>332.0</ele><time>2026-03-31T15:12:34Z</time></trkpt><trkpt lat="43.09150176642687" lon="-0.7164745757571133"><ele>332.0</ele><time>2026-03-31T15:12:35Z</time></trkpt><trkpt lat="43.09159392097597" lon="-0.7163704116178801"><ele>332.0</ele><time>2026-03-31T15:12:36Z</time></trkpt><trkpt lat="43.09167849641234" lon="-0.7162702493553275"><ele>332.0</ele><time>2026-03-31T15:12:37Z</time></trkpt><trkpt lat="43.09175853309234" lon="-0.7161733350195555"><ele>332.0</ele><time>2026-03-31T15:12:38Z</time></trkpt><trkpt lat="43.091833833958646" lon="-0.7160842689889603"><ele>332.0</ele><time>2026-03-31T15:12:39Z</time></trkpt><trkpt lat="43.09191221480322" lon="-0.716004291417046"><ele>332.0</ele><time>2026-03-31T15:12:40Z</time></trkpt><trkpt lat="43.09199189498856" lon="-0.7159226888301884"><ele>331.6666666666667</ele><time>2026-03-31T15:12:41Z</time></trkpt><trkpt lat="43.09205706383862" lon="-0.7158402799969008"><ele>331.33333333333337</ele><time>2026-03-31T15:12:42Z</time></trkpt><trkpt lat="43.09211600355489" lon="-0.7157637526065194"><ele>331.0</ele><time>2026-03-31T15:12:43Z</time></trkpt><trkpt lat="43.092165514511386" lon="-0.7157036201313897"><ele>330.6666666666667</ele><time>2026-03-31T15:12:44Z</time></trkpt><trkpt lat="43.09222376733168" lon="-0.7156538759023358"><ele>330.3333333333333</ele><time>2026-03-31T15:12:45Z</time></trkpt><trkpt lat="43.09229972031702" lon="-0.7156097363900148"><ele>330.0</ele><time>2026-03-31T15:12:46Z</time></trkpt><trkpt lat="43.09238136157791" lon="-0.7155730188465775"><ele>330.0</ele><time>2026-03-31T15:12:47Z</time></trkpt><trkpt lat="43.092443939472965" lon="-0.7155589477375622"><ele>330.0</ele><time>2026-03-31T15:12:48Z</time></trkpt><trkpt lat="43.09254586080929" lon="-0.7155812389322477"><ele>330.0</ele><time>2026-03-31T15:12:50Z</time></trkpt><trkpt lat="43.09267249438654" lon="-0.7156333091365352"><ele>330.0</ele><time>2026-03-31T15:12:52Z</time></trkpt><trkpt lat="43.092756689004425" lon="-0.7156741639295593"><ele>330.0</ele><time>2026-03-31T15:12:53Z</time></trkpt><trkpt lat="43.092851833489036" lon="-0.7157205297551033"><ele>330.0</ele><time>2026-03-31T15:12:54Z</time></trkpt><trkpt lat="43.092948392430465" lon="-0.7157753483517172"><ele>330.0</ele><time>2026-03-31T15:12:55Z</time></trkpt><trkpt lat="43.09303738493738" lon="-0.7158244763549533"><ele>330.0</ele><time>2026-03-31T15:12:56Z</time></trkpt><trkpt lat="43.09312938939464" lon="-0.7158669791060537"><ele>330.0</ele><time>2026-03-31T15:12:57Z</time></trkpt><trkpt lat="43.09322336219165" lon="-0.7159065097475351"><ele>330.0</ele><time>2026-03-31T15:12:58Z</time></trkpt><trkpt lat="43.093317496622625" lon="-0.7159332567988134"><ele>329.8</ele><time>2026-03-31T15:12:59Z</time></trkpt><trkpt lat="43.09340923853097" lon="-0.7159574154478214"><ele>329.6</ele><time>2026-03-31T15:13:00Z</time></trkpt><trkpt lat="43.09351953447122" lon="-0.7159873518063588"><ele>329.4</ele><time>2026-03-31T15:13:01Z</time></trkpt><trkpt lat="43.09362312649289" lon="-0.7160194416677954"><ele>329.2</ele><time>2026-03-31T15:13:02Z</time></trkpt><trkpt lat="43.093729408105965" lon="-0.7160301247835881"><ele>329.0</ele><time>2026-03-31T15:13:03Z</time></trkpt><trkpt lat="43.093797490989445" lon="-0.7160775972893318"><ele>329.0</ele><time>2026-03-31T15:13:04Z</time></trkpt><trkpt lat="43.09387438495448" lon="-0.716108858545749"><ele>329.0</ele><time>2026-03-31T15:13:05Z</time></trkpt><trkpt lat="43.09394873460872" lon="-0.7161448279140629"><ele>329.0</ele><time>2026-03-31T15:13:06Z</time></trkpt><trkpt lat="43.09402752575501" lon="-0.7161801001031702"><ele>329.0</ele><time>2026-03-31T15:13:07Z</time></trkpt><trkpt lat="43.094098910087176" lon="-0.7162141012356881"><ele>329.0</ele><time>2026-03-31T15:13:08Z</time></trkpt><trkpt lat="43.09415688793336" lon="-0.7162529522690952"><ele>329.0</ele><time>2026-03-31T15:13:09Z</time></trkpt><trkpt lat="43.094228737385016" lon="-0.7162596821802891"><ele>329.0</ele><time>2026-03-31T15:13:11Z</time></trkpt><trkpt lat="43.09431327663075" lon="-0.7161290252456921"><ele>329.0</ele><time>2026-03-31T15:13:15Z</time></trkpt><trkpt lat="43.09425465511787" lon="-0.716184635542903"><ele>329.0</ele><time>2026-03-31T15:13:21Z</time></trkpt><trkpt lat="43.09427114200621" lon="-0.7163241063353646"><ele>329.0</ele><time>2026-03-31T15:13:23Z</time></trkpt><trkpt lat="43.0942854776692" lon="-0.7164174624878059"><ele>329.0</ele><time>2026-03-31T15:13:26Z</time></trkpt><trkpt lat="43.094346766302316" lon="-0.7164625698036077"><ele>329.0</ele><time>2026-03-31T15:13:28Z</time></trkpt><trkpt lat="43.09438915751599" lon="-0.7165302898275152"><ele>329.0</ele><time>2026-03-31T15:17:00Z</time></trkpt><trkpt lat="43.09437599849682" lon="-0.7166160989248823"><ele>329.0</ele><time>2026-03-31T15:17:06Z</time></trkpt><trkpt lat="43.09434553149978" lon="-0.7165265405470468"><ele>329.0</ele><time>2026-03-31T15:17:11Z</time></trkpt><trkpt lat="43.094285203296494" lon="-0.7164515126051247"><ele>329.0</ele><time>2026-03-31T15:17:20Z</time></trkpt><trkpt lat="43.09422459926645" lon="-0.7164216462291192"><ele>329.0</ele><time>2026-03-31T15:17:24Z</time></trkpt><trkpt lat="43.09428042324581" lon="-0.7164644076439226"><ele>329.0</ele><time>2026-03-31T15:17:33Z</time></trkpt><trkpt lat="43.094346417413256" lon="-0.7164820922343643"><ele>329.0</ele><time>2026-03-31T15:19:41Z</time></trkpt><trkpt lat="43.094284661954426" lon="-0.716438118236027"><ele>329.0</ele><time>2026-03-31T15:20:56Z</time></trkpt><trkpt lat="43.09427050092494" lon="-0.7163499585142982"><ele>329.0</ele><time>2026-03-31T15:20:59Z</time></trkpt><trkpt lat="43.09433932530847" lon="-0.7163740588269388"><ele>329.0</ele><time>2026-03-31T15:21:01Z</time></trkpt><trkpt lat="43.094395840960196" lon="-0.7164300748301587"><ele>329.0</ele><time>2026-03-31T15:21:02Z</time></trkpt><trkpt lat="43.09445222461205" lon="-0.7165096057758342"><ele>329.0</ele><time>2026-03-31T15:21:03Z</time></trkpt><trkpt lat="43.09451753953772" lon="-0.7165740080682963"><ele>329.0</ele><time>2026-03-31T15:21:04Z</time></trkpt><trkpt lat="43.094616117485735" lon="-0.7166562190378433"><ele>329.0</ele><time>2026-03-31T15:21:06Z</time></trkpt><trkpt lat="43.094703331176305" lon="-0.7167198722259862"><ele>329.0</ele><time>2026-03-31T15:21:08Z</time></trkpt><trkpt lat="43.09476061798267" lon="-0.7167578718020685"><ele>329.0</ele><time>2026-03-31T15:21:09Z</time></trkpt><trkpt lat="43.09482601241685" lon="-0.7168010917035639"><ele>329.0</ele><time>2026-03-31T15:21:10Z</time></trkpt><trkpt lat="43.09488830472812" lon="-0.716839600873696"><ele>329.0</ele><time>2026-03-31T15:21:11Z</time></trkpt><trkpt lat="43.09499956953254" lon="-0.7169062374956797"><ele>329.0</ele><time>2026-03-31T15:21:13Z</time></trkpt><trkpt lat="43.09505626440587" lon="-0.7169488186719316"><ele>328.2</ele><time>2026-03-31T15:21:14Z</time></trkpt><trkpt lat="43.095160499113604" lon="-0.7170179800640313"><ele>327.4</ele><time>2026-03-31T15:21:16Z</time></trkpt><trkpt lat="43.09526668756552" lon="-0.7170553122368728"><ele>326.6</ele><time>2026-03-31T15:21:18Z</time></trkpt><trkpt lat="43.09534794979301" lon="-0.7170455660550678"><ele>325.8</ele><time>2026-03-31T15:21:20Z</time></trkpt><trkpt lat="43.09544126762463" lon="-0.7170378129241722"><ele>325.0</ele><time>2026-03-31T15:21:22Z</time></trkpt><trkpt lat="43.09553558979547" lon="-0.7170201886136033"><ele>325.0</ele><time>2026-03-31T15:21:24Z</time></trkpt><trkpt lat="43.09564756232151" lon="-0.7169776095149716"><ele>325.0</ele><time>2026-03-31T15:21:26Z</time></trkpt><trkpt lat="43.09575603135902" lon="-0.7169438150502295"><ele>325.0</ele><time>2026-03-31T15:21:28Z</time></trkpt><trkpt lat="43.09585589031823" lon="-0.7169148437004712"><ele>325.0</ele><time>2026-03-31T15:21:30Z</time></trkpt><trkpt lat="43.095943751650935" lon="-0.7168935682469048"><ele>325.0</ele><time>2026-03-31T15:21:32Z</time></trkpt><trkpt lat="43.09602606860098" lon="-0.7168951382256699"><ele>324.8333333333333</ele><time>2026-03-31T15:21:34Z</time></trkpt><trkpt lat="43.096108240497024" lon="-0.716880307504451"><ele>324.66666666666663</ele><time>2026-03-31T15:21:36Z</time></trkpt><trkpt lat="43.09619539674164" lon="-0.7168677429275253"><ele>324.5</ele><time>2026-03-31T15:21:38Z</time></trkpt><trkpt lat="43.09627744402412" lon="-0.7168778097496656"><ele>324.3333333333333</ele><time>2026-03-31T15:21:40Z</time></trkpt><trkpt lat="43.09634924876434" lon="-0.7168781331094178"><ele>324.1666666666667</ele><time>2026-03-31T15:21:42Z</time></trkpt><trkpt lat="43.096402646489885" lon="-0.7169338471275155"><ele>324.0</ele><time>2026-03-31T15:21:45Z</time></trkpt><trkpt lat="43.09633476599638" lon="-0.7169974666300523"><ele>324.0</ele><time>2026-03-31T15:21:48Z</time></trkpt><trkpt lat="43.09626609819352" lon="-0.7169477974358826"><ele>324.0</ele><time>2026-03-31T15:21:51Z</time></trkpt><trkpt lat="43.09629062848727" lon="-0.7168650303589058"><ele>324.0</ele><time>2026-03-31T15:22:21Z</time></trkpt><trkpt lat="43.09621694120276" lon="-0.7168746245544021"><ele>324.0</ele><time>2026-03-31T15:23:39Z</time></trkpt><trkpt lat="43.09614822786754" lon="-0.7168634855113216"><ele>324.0</ele><time>2026-03-31T15:24:04Z</time></trkpt><trkpt lat="43.09621949216459" lon="-0.7168926029631026"><ele>324.0</ele><time>2026-03-31T15:25:21Z</time></trkpt><trkpt lat="43.09628615973533" lon="-0.7169124201762036"><ele>324.0</ele><time>2026-03-31T15:25:28Z</time></trkpt><trkpt lat="43.09637762045857" lon="-0.7168714185751356"><ele>324.0</ele><time>2026-03-31T15:36:07.001Z</time></trkpt><trkpt lat="43.096466651120956" lon="-0.716883899718696"><ele>324.0</ele><time>2026-03-31T15:36:08.001Z</time></trkpt><trkpt lat="43.096561007825514" lon="-0.7168943962428589"><ele>324.0</ele><time>2026-03-31T15:36:09.001Z</time></trkpt><trkpt lat="43.096664434756775" lon="-0.716904817190972"><ele>324.0</ele><time>2026-03-31T15:36:10.001Z</time></trkpt><trkpt lat="43.0967655044724" lon="-0.7169146391030432"><ele>324.0</ele><time>2026-03-31T15:36:11.001Z</time></trkpt><trkpt lat="43.09687641363928" lon="-0.7169242445200168"><ele>322.8</ele><time>2026-03-31T15:36:12.001Z</time></trkpt><trkpt lat="43.09698446717341" lon="-0.7169388759612324"><ele>321.59999999999997</ele><time>2026-03-31T15:36:13.001Z</time></trkpt><trkpt lat="43.09709076041237" lon="-0.7169599388519092"><ele>320.4</ele><time>2026-03-31T15:36:14.001Z</time></trkpt><trkpt lat="43.09718089336473" lon="-0.7169913235621649"><ele>319.2</ele><time>2026-03-31T15:36:15.001Z</time></trkpt><trkpt lat="43.09726204520771" lon="-0.7170311509190517"><ele>318.0</ele><time>2026-03-31T15:36:16.001Z</time></trkpt><trkpt lat="43.0973346315946" lon="-0.7170791966066209"><ele>318.0</ele><time>2026-03-31T15:36:17.001Z</time></trkpt><trkpt lat="43.09740093176515" lon="-0.7171169436373044"><ele>318.0</ele><time>2026-03-31T15:36:18.001Z</time></trkpt><trkpt lat="43.09747122747486" lon="-0.7171490564739549"><ele>318.0</ele><time>2026-03-31T15:36:19.001Z</time></trkpt><trkpt lat="43.09754215927422" lon="-0.7171750589762493"><ele>318.0</ele><time>2026-03-31T15:36:20.001Z</time></trkpt><trkpt lat="43.09760856254082" lon="-0.7172068507250022"><ele>318.0</ele><time>2026-03-31T15:36:21.001Z</time></trkpt><trkpt lat="43.09769322130281" lon="-0.7172504240235106"><ele>318.0</ele><time>2026-03-31T15:36:22.001Z</time></trkpt><trkpt lat="43.09778161877115" lon="-0.7173143881816108"><ele>317.75</ele><time>2026-03-31T15:36:23.001Z</time></trkpt><trkpt lat="43.097866408148434" lon="-0.717412295533501"><ele>317.5</ele><time>2026-03-31T15:36:24.001Z</time></trkpt><trkpt lat="43.097935730205265" lon="-0.7175402126149671"><ele>317.25</ele><time>2026-03-31T15:36:25.001Z</time></trkpt><trkpt lat="43.09799330000519" lon="-0.7176848445697186"><ele>317.0</ele><time>2026-03-31T15:36:26.001Z</time></trkpt><trkpt lat="43.098049159239714" lon="-0.7178315868317251"><ele>316.8</ele><time>2026-03-31T15:36:27.001Z</time></trkpt><trkpt lat="43.09809673058158" lon="-0.7179866130309266"><ele>316.6</ele><time>2026-03-31T15:36:28.001Z</time></trkpt><trkpt lat="43.098131526532995" lon="-0.7181309444572184"><ele>316.40000000000003</ele><time>2026-03-31T15:36:29.001Z</time></trkpt><trkpt lat="43.098154901548845" lon="-0.7182647547042845"><ele>316.2</ele><time>2026-03-31T15:36:30.001Z</time></trkpt><trkpt lat="43.09816042969158" lon="-0.7183899587973239"><ele>316.0</ele><time>2026-03-31T15:36:31Z</time></trkpt><trkpt lat="43.09816166902175" lon="-0.718528524244709"><ele>316.0</ele><time>2026-03-31T15:36:32Z</time></trkpt><trkpt lat="43.09817453029126" lon="-0.7186756587840797"><ele>316.0</ele><time>2026-03-31T15:36:33Z</time></trkpt><trkpt lat="43.09820100628498" lon="-0.7188136023946329"><ele>316.0</ele><time>2026-03-31T15:36:34Z</time></trkpt><trkpt lat="43.09827806922758" lon="-0.7189124418495388"><ele>316.0</ele><time>2026-03-31T15:36:35Z</time></trkpt><trkpt lat="43.098358657739304" lon="-0.7190174137250709"><ele>316.0</ele><time>2026-03-31T15:36:36Z</time></trkpt><trkpt lat="43.09845176923272" lon="-0.7191501836269198"><ele>316.0</ele><time>2026-03-31T15:36:37Z</time></trkpt><trkpt lat="43.098566785395036" lon="-0.7192671310581589"><ele>316.0</ele><time>2026-03-31T15:36:38Z</time></trkpt><trkpt lat="43.09867531284972" lon="-0.7193962649264247"><ele>316.0</ele><time>2026-03-31T15:36:39Z</time></trkpt><trkpt lat="43.098776054860096" lon="-0.7195375836479326"><ele>316.0</ele><time>2026-03-31T15:36:40Z</time></trkpt><trkpt lat="43.09886598493975" lon="-0.7196793299640779"><ele>316.25</ele><time>2026-03-31T15:36:41Z</time></trkpt><trkpt lat="43.09894510103291" lon="-0.7198245284906937"><ele>316.5</ele><time>2026-03-31T15:36:42Z</time></trkpt><trkpt lat="43.09902667697269" lon="-0.7199803751404952"><ele>316.75</ele><time>2026-03-31T15:36:43Z</time></trkpt><trkpt lat="43.099123091531844" lon="-0.7201040899929066"><ele>317.0</ele><time>2026-03-31T15:36:44Z</time></trkpt><trkpt lat="43.099235693647174" lon="-0.7202007514650312"><ele>316.0</ele><time>2026-03-31T15:36:45Z</time></trkpt><trkpt lat="43.09936845739715" lon="-0.7202990262634879"><ele>315.0</ele><time>2026-03-31T15:36:46Z</time></trkpt><trkpt lat="43.09950949350279" lon="-0.7204033476215861"><ele>314.0</ele><time>2026-03-31T15:36:47Z</time></trkpt><trkpt lat="43.099663117388886" lon="-0.7205205837133895"><ele>314.0</ele><time>2026-03-31T15:36:48Z</time></trkpt><trkpt lat="43.09982151177232" lon="-0.7206409653677056"><ele>314.0</ele><time>2026-03-31T15:36:49Z</time></trkpt><trkpt lat="43.09996861257465" lon="-0.7207532914998899"><ele>314.0</ele><time>2026-03-31T15:36:50Z</time></trkpt><trkpt lat="43.10011524645197" lon="-0.7208686861640399"><ele>314.33333333333337</ele><time>2026-03-31T15:36:51Z</time></trkpt><trkpt lat="43.10026371430284" lon="-0.7209880351876694"><ele>314.6666666666667</ele><time>2026-03-31T15:36:52Z</time></trkpt><trkpt lat="43.100412329234224" lon="-0.7211027773474242"><ele>315.0</ele><time>2026-03-31T15:36:53Z</time></trkpt><trkpt lat="43.10056441442341" lon="-0.7212254001064419"><ele>315.0</ele><time>2026-03-31T15:36:54Z</time></trkpt><trkpt lat="43.10071045314933" lon="-0.7213437740445175"><ele>315.0</ele><time>2026-03-31T15:36:55Z</time></trkpt><trkpt lat="43.100860350333406" lon="-0.7214644836749708"><ele>315.0</ele><time>2026-03-31T15:36:56Z</time></trkpt><trkpt lat="43.10100244352057" lon="-0.7215831327460711"><ele>315.0</ele><time>2026-03-31T15:36:57Z</time></trkpt><trkpt lat="43.10114409358349" lon="-0.7217075313790581"><ele>315.0</ele><time>2026-03-31T15:36:58Z</time></trkpt><trkpt lat="43.10127867262566" lon="-0.7218441427054973"><ele>315.0</ele><time>2026-03-31T15:36:59Z</time></trkpt><trkpt lat="43.10140040337391" lon="-0.7220006479008126"><ele>315.0</ele><time>2026-03-31T15:37:00Z</time></trkpt><trkpt lat="43.10150980899474" lon="-0.7221787627946002"><ele>315.0</ele><time>2026-03-31T15:37:01Z</time></trkpt><trkpt lat="43.10160487782076" lon="-0.7223784927127745"><ele>315.0</ele><time>2026-03-31T15:37:02Z</time></trkpt><trkpt lat="43.10168891449227" lon="-0.7225901918851"><ele>313.0</ele><time>2026-03-31T15:37:03Z</time></trkpt><trkpt lat="43.101768346371806" lon="-0.7228128118356975"><ele>311.0</ele><time>2026-03-31T15:37:04Z</time></trkpt><trkpt lat="43.10184459276578" lon="-0.7230403037772732"><ele>309.0</ele><time>2026-03-31T15:37:05Z</time></trkpt><trkpt lat="43.10192186965885" lon="-0.7232769550529689"><ele>309.0</ele><time>2026-03-31T15:37:06Z</time></trkpt><trkpt lat="43.10199424498242" lon="-0.7234939371196184"><ele>309.0</ele><time>2026-03-31T15:37:07Z</time></trkpt><trkpt lat="43.10207029794487" lon="-0.7237032905945069"><ele>309.0</ele><time>2026-03-31T15:37:08Z</time></trkpt><trkpt lat="43.10217314963815" lon="-0.7238854456002141"><ele>309.0</ele><time>2026-03-31T15:37:09Z</time></trkpt><trkpt lat="43.10228508343264" lon="-0.7240641435570384"><ele>309.0</ele><time>2026-03-31T15:37:10Z</time></trkpt><trkpt lat="43.10242792062501" lon="-0.7242440436194684"><ele>309.0</ele><time>2026-03-31T15:37:11Z</time></trkpt><trkpt lat="43.10257882254509" lon="-0.7244412126879204"><ele>309.0</ele><time>2026-03-31T15:37:12Z</time></trkpt><trkpt lat="43.10272555276945" lon="-0.7246380884279802"><ele>309.0</ele><time>2026-03-31T15:37:13Z</time></trkpt><trkpt lat="43.102876302077064" lon="-0.7248337746415706"><ele>309.0</ele><time>2026-03-31T15:37:14Z</time></trkpt><trkpt lat="43.10302310407575" lon="-0.7250275341838873"><ele>309.0</ele><time>2026-03-31T15:37:15Z</time></trkpt><trkpt lat="43.10316886401468" lon="-0.7252221446971627"><ele>309.0</ele><time>2026-03-31T15:37:16Z</time></trkpt><trkpt lat="43.103314865782814" lon="-0.7254148506495657"><ele>309.0</ele><time>2026-03-31T15:37:17Z</time></trkpt><trkpt lat="43.10346657602757" lon="-0.7256186261972827"><ele>307.6666666666667</ele><time>2026-03-31T15:37:18Z</time></trkpt><trkpt lat="43.103616113506426" lon="-0.7258144012927366"><ele>306.33333333333337</ele><time>2026-03-31T15:37:19Z</time></trkpt><trkpt lat="43.10376864004533" lon="-0.7260100327730517"><ele>305.0</ele><time>2026-03-31T15:37:20Z</time></trkpt><trkpt lat="43.10392450811982" lon="-0.726203433636065"><ele>305.0</ele><time>2026-03-31T15:37:21Z</time></trkpt><trkpt lat="43.10407958287684" lon="-0.7263988457090962"><ele>305.0</ele><time>2026-03-31T15:37:22Z</time></trkpt><trkpt lat="43.10423749344473" lon="-0.726599494787973"><ele>305.0</ele><time>2026-03-31T15:37:23Z</time></trkpt><trkpt lat="43.10440925975301" lon="-0.7268075953500609"><ele>304.5</ele><time>2026-03-31T15:37:24Z</time></trkpt><trkpt lat="43.104586484010674" lon="-0.727017154931182"><ele>304.0</ele><time>2026-03-31T15:37:25Z</time></trkpt><trkpt lat="43.10475682308326" lon="-0.7272216796885899"><ele>304.66666666666663</ele><time>2026-03-31T15:37:26Z</time></trkpt><trkpt lat="43.104919234640576" lon="-0.7274057068094835"><ele>305.3333333333333</ele><time>2026-03-31T15:37:27Z</time></trkpt><trkpt lat="43.105087819486336" lon="-0.7275974331979772"><ele>306.0</ele><time>2026-03-31T15:37:28Z</time></trkpt><trkpt lat="43.10525858160904" lon="-0.7277861447887033"><ele>306.0</ele><time>2026-03-31T15:37:29Z</time></trkpt><trkpt lat="43.105428747505876" lon="-0.7279700614828286"><ele>306.0</ele><time>2026-03-31T15:37:30.001Z</time></trkpt><trkpt lat="43.10559473909173" lon="-0.7281566232033759"><ele>306.0</ele><time>2026-03-31T15:37:31.001Z</time></trkpt><trkpt lat="43.10575266964057" lon="-0.7283371280074146"><ele>305.0</ele><time>2026-03-31T15:37:32.001Z</time></trkpt><trkpt lat="43.105906530705624" lon="-0.7285152650198844"><ele>304.0</ele><time>2026-03-31T15:37:33.001Z</time></trkpt><trkpt lat="43.10605583803801" lon="-0.7286791257782917"><ele>303.0</ele><time>2026-03-31T15:37:34.001Z</time></trkpt><trkpt lat="43.10619617856642" lon="-0.7288290092405951"><ele>303.0</ele><time>2026-03-31T15:37:35.001Z</time></trkpt><trkpt lat="43.10633677680239" lon="-0.7289542442123496"><ele>303.0</ele><time>2026-03-31T15:37:36.001Z</time></trkpt><trkpt lat="43.10649608815363" lon="-0.7290666570282336"><ele>303.0</ele><time>2026-03-31T15:37:37.001Z</time></trkpt><trkpt lat="43.106681492806366" lon="-0.7291668271687819"><ele>304.3333333333333</ele><time>2026-03-31T15:37:38.001Z</time></trkpt><trkpt lat="43.10688024971955" lon="-0.7292676931303107"><ele>305.66666666666663</ele><time>2026-03-31T15:37:39.001Z</time></trkpt><trkpt lat="43.10705753659727" lon="-0.7293561238839011"><ele>307.0</ele><time>2026-03-31T15:37:40.001Z</time></trkpt><trkpt lat="43.107216872928994" lon="-0.7294469857724141"><ele>304.75</ele><time>2026-03-31T15:37:41.001Z</time></trkpt><trkpt lat="43.10734588238607" lon="-0.729511260137062"><ele>302.5</ele><time>2026-03-31T15:37:42.001Z</time></trkpt><trkpt lat="43.10747475097107" lon="-0.7295321027545247"><ele>300.25</ele><time>2026-03-31T15:37:43.001Z</time></trkpt><trkpt lat="43.10762647575303" lon="-0.7295179434909163"><ele>298.0</ele><time>2026-03-31T15:37:44.001Z</time></trkpt><trkpt lat="43.107810995978646" lon="-0.7294788709549076"><ele>298.0</ele><time>2026-03-31T15:37:45.001Z</time></trkpt><trkpt lat="43.10798775214288" lon="-0.7294547643475607"><ele>298.0</ele><time>2026-03-31T15:37:46.001Z</time></trkpt><trkpt lat="43.10814634823579" lon="-0.7294326762013029"><ele>298.0</ele><time>2026-03-31T15:37:47.001Z</time></trkpt><trkpt lat="43.10829847074331" lon="-0.7294153433296393"><ele>297.5</ele><time>2026-03-31T15:37:48.001Z</time></trkpt><trkpt lat="43.10844287218829" lon="-0.7294245485784139"><ele>297.0</ele><time>2026-03-31T15:37:49.001Z</time></trkpt><trkpt lat="43.10857890941717" lon="-0.7294809866869421"><ele>296.5</ele><time>2026-03-31T15:37:50.001Z</time></trkpt><trkpt lat="43.10870618135892" lon="-0.7295741230705737"><ele>296.0</ele><time>2026-03-31T15:37:51.001Z</time></trkpt><trkpt lat="43.108822462457404" lon="-0.7296771053002628"><ele>296.0</ele><time>2026-03-31T15:37:52.001Z</time></trkpt><trkpt lat="43.10894643955739" lon="-0.729733479735479"><ele>296.0</ele><time>2026-03-31T15:37:53.001Z</time></trkpt><trkpt lat="43.109072797719506" lon="-0.7297125385311023"><ele>296.0</ele><time>2026-03-31T15:37:54.001Z</time></trkpt><trkpt lat="43.109197464543556" lon="-0.7296611197865034"><ele>296.0</ele><time>2026-03-31T15:37:55.001Z</time></trkpt><trkpt lat="43.10933669233719" lon="-0.7296023787384077"><ele>297.0</ele><time>2026-03-31T15:37:56Z</time></trkpt><trkpt lat="43.10949755896907" lon="-0.7295388978035832"><ele>298.0</ele><time>2026-03-31T15:37:57Z</time></trkpt><trkpt lat="43.1096816915034" lon="-0.7295145763573668"><ele>299.0</ele><time>2026-03-31T15:37:58Z</time></trkpt><trkpt lat="43.10987660858396" lon="-0.729483918469785"><ele>298.33333333333337</ele><time>2026-03-31T15:37:59Z</time></trkpt><trkpt lat="43.11007662984167" lon="-0.7294567886529124"><ele>297.6666666666667</ele><time>2026-03-31T15:38:00Z</time></trkpt><trkpt lat="43.11028285507894" lon="-0.7294200062886309"><ele>297.0</ele><time>2026-03-31T15:38:01Z</time></trkpt><trkpt lat="43.1105048707803" lon="-0.7293825046717995"><ele>300.5</ele><time>2026-03-31T15:38:02Z</time></trkpt><trkpt lat="43.110733195047004" lon="-0.7293437091766324"><ele>304.0</ele><time>2026-03-31T15:38:03Z</time></trkpt><trkpt lat="43.110963370109" lon="-0.7293045354308391"><ele>304.0</ele><time>2026-03-31T15:38:04Z</time></trkpt><trkpt lat="43.11119079252194" lon="-0.7292632428783016"><ele>304.0</ele><time>2026-03-31T15:38:05Z</time></trkpt><trkpt lat="43.11141318404478" lon="-0.7292223353283771"><ele>300.5</ele><time>2026-03-31T15:38:06Z</time></trkpt><trkpt lat="43.11163527380548" lon="-0.7291855021935517"><ele>297.0</ele><time>2026-03-31T15:38:07Z</time></trkpt><trkpt lat="43.11187085969613" lon="-0.7291519005279484"><ele>297.0</ele><time>2026-03-31T15:38:08Z</time></trkpt><trkpt lat="43.112129254317686" lon="-0.7291107731428685"><ele>297.0</ele><time>2026-03-31T15:38:09Z</time></trkpt><trkpt lat="43.11239774707916" lon="-0.729065654245154"><ele>294.0</ele><time>2026-03-31T15:38:10Z</time></trkpt><trkpt lat="43.11264115020924" lon="-0.7290065655684805"><ele>291.0</ele><time>2026-03-31T15:38:11Z</time></trkpt><trkpt lat="43.112865242110196" lon="-0.7289409288536514"><ele>291.0</ele><time>2026-03-31T15:38:12Z</time></trkpt><trkpt lat="43.11306264528684" lon="-0.7288342448980568"><ele>291.0</ele><time>2026-03-31T15:38:13Z</time></trkpt><trkpt lat="43.113260028251126" lon="-0.7287291775057759"><ele>291.0</ele><time>2026-03-31T15:38:14Z</time></trkpt><trkpt lat="43.113458660874365" lon="-0.7286284385596409"><ele>290.6666666666667</ele><time>2026-03-31T15:38:15Z</time></trkpt><trkpt lat="43.11365641929003" lon="-0.7284881466027021"><ele>290.33333333333337</ele><time>2026-03-31T15:38:16Z</time></trkpt><trkpt lat="43.113842946432975" lon="-0.7283333843516447"><ele>290.0</ele><time>2026-03-31T15:38:17Z</time></trkpt><trkpt lat="43.11403324181017" lon="-0.72817765799578"><ele>290.0</ele><time>2026-03-31T15:38:18Z</time></trkpt><trkpt lat="43.11421998937633" lon="-0.7280203526469256"><ele>290.0</ele><time>2026-03-31T15:38:19Z</time></trkpt><trkpt lat="43.11440789854539" lon="-0.7278650082483819"><ele>290.0</ele><time>2026-03-31T15:38:20Z</time></trkpt><trkpt lat="43.1145938228632" lon="-0.7277107798768345"><ele>290.0</ele><time>2026-03-31T15:38:21Z</time></trkpt><trkpt lat="43.114780781227594" lon="-0.72755082028902"><ele>290.0</ele><time>2026-03-31T15:38:22Z</time></trkpt><trkpt lat="43.11497034553045" lon="-0.727390394665313"><ele>290.0</ele><time>2026-03-31T15:38:23Z</time></trkpt><trkpt lat="43.11515801036632" lon="-0.7272351211087712"><ele>290.0</ele><time>2026-03-31T15:38:24Z</time></trkpt><trkpt lat="43.11535080799047" lon="-0.7270712694882233"><ele>290.0</ele><time>2026-03-31T15:38:25Z</time></trkpt><trkpt lat="43.11554223339355" lon="-0.726920601715563"><ele>290.0</ele><time>2026-03-31T15:38:26Z</time></trkpt><trkpt lat="43.115738314088674" lon="-0.7267822242751497"><ele>289.33333333333337</ele><time>2026-03-31T15:38:27Z</time></trkpt><trkpt lat="43.115941620408826" lon="-0.7266711964536943"><ele>288.6666666666667</ele><time>2026-03-31T15:38:28Z</time></trkpt><trkpt lat="43.11615103644933" lon="-0.7265899100722129"><ele>288.0</ele><time>2026-03-31T15:38:29Z</time></trkpt><trkpt lat="43.11636936513436" lon="-0.726541452831982"><ele>287.0</ele><time>2026-03-31T15:38:30Z</time></trkpt><trkpt lat="43.11658965727121" lon="-0.7265271483081395"><ele>286.0</ele><time>2026-03-31T15:38:31Z</time></trkpt><trkpt lat="43.116800546081635" lon="-0.7265321650495227"><ele>285.0</ele><time>2026-03-31T15:38:32Z</time></trkpt><trkpt lat="43.1170054451082" lon="-0.7265351319327171"><ele>285.0</ele><time>2026-03-31T15:38:33Z</time></trkpt><trkpt lat="43.11719442966292" lon="-0.7265220451249463"><ele>285.0</ele><time>2026-03-31T15:38:34Z</time></trkpt><trkpt lat="43.11737832332768" lon="-0.7264966819757738"><ele>285.0</ele><time>2026-03-31T15:38:35Z</time></trkpt><trkpt lat="43.117575312300694" lon="-0.7264550860008202"><ele>284.3333333333333</ele><time>2026-03-31T15:38:36Z</time></trkpt><trkpt lat="43.11778140891032" lon="-0.7264025712782018"><ele>283.66666666666663</ele><time>2026-03-31T15:38:37Z</time></trkpt><trkpt lat="43.11796978272899" lon="-0.7263573709215879"><ele>283.0</ele><time>2026-03-31T15:38:38Z</time></trkpt><trkpt lat="43.118147774598604" lon="-0.726330987293426"><ele>282.0</ele><time>2026-03-31T15:38:39Z</time></trkpt><trkpt lat="43.11831558846216" lon="-0.7263098480279527"><ele>281.0</ele><time>2026-03-31T15:38:40Z</time></trkpt><trkpt lat="43.11847202900043" lon="-0.7263025130826268"><ele>280.0</ele><time>2026-03-31T15:38:41Z</time></trkpt><trkpt lat="43.11862224436067" lon="-0.7263141807389415"><ele>280.0</ele><time>2026-03-31T15:38:42Z</time></trkpt><trkpt lat="43.11876860706837" lon="-0.7263280579045363"><ele>280.0</ele><time>2026-03-31T15:38:43Z</time></trkpt><trkpt lat="43.118912196074795" lon="-0.7263540809900338"><ele>280.0</ele><time>2026-03-31T15:38:44Z</time></trkpt><trkpt lat="43.119042505408174" lon="-0.7263934939036109"><ele>280.0</ele><time>2026-03-31T15:38:45Z</time></trkpt><trkpt lat="43.11915318011405" lon="-0.7264303828899098"><ele>280.75</ele><time>2026-03-31T15:38:46Z</time></trkpt><trkpt lat="43.11926012333694" lon="-0.726466103044645"><ele>281.5</ele><time>2026-03-31T15:38:47Z</time></trkpt><trkpt lat="43.11938167437153" lon="-0.7265091570500006"><ele>282.25</ele><time>2026-03-31T15:38:48Z</time></trkpt><trkpt lat="43.11949338829855" lon="-0.7265636652615862"><ele>283.0</ele><time>2026-03-31T15:38:49Z</time></trkpt><trkpt lat="43.11958976440041" lon="-0.7266243809352346"><ele>283.0</ele><time>2026-03-31T15:38:50Z</time></trkpt><trkpt lat="43.119675763500645" lon="-0.7267037016603334"><ele>283.0</ele><time>2026-03-31T15:38:51Z</time></trkpt><trkpt lat="43.11974879155137" lon="-0.7267921652317958"><ele>283.0</ele><time>2026-03-31T15:38:52Z</time></trkpt><trkpt lat="43.11981435886638" lon="-0.7268762042820447"><ele>283.0</ele><time>2026-03-31T15:38:53Z</time></trkpt><trkpt lat="43.1198759586788" lon="-0.7269441703533954"><ele>283.0</ele><time>2026-03-31T15:38:54Z</time></trkpt><trkpt lat="43.1199298212709" lon="-0.7269975319043603"><ele>283.0</ele><time>2026-03-31T15:38:55Z</time></trkpt><trkpt lat="43.12001585330359" lon="-0.7270316592677046"><ele>282.5</ele><time>2026-03-31T15:38:57Z</time></trkpt><trkpt lat="43.12006344437747" lon="-0.726955491008212"><ele>282.0</ele><time>2026-03-31T15:39:40.001Z</time></trkpt><trkpt lat="43.120070597367125" lon="-0.7271061480213579"><ele>281.5</ele><time>2026-03-31T15:39:43.001Z</time></trkpt><trkpt lat="43.120068307752916" lon="-0.7272179182798959"><ele>281.0</ele><time>2026-03-31T15:39:50.001Z</time></trkpt><trkpt lat="43.120097125955965" lon="-0.7273005200120536"><ele>280.5</ele><time>2026-03-31T15:39:51.001Z</time></trkpt><trkpt lat="43.12013230833128" lon="-0.7273961802698344"><ele>280.0</ele><time>2026-03-31T15:39:52Z</time></trkpt><trkpt lat="43.120167982217836" lon="-0.7275008036432827"><ele>280.0</ele><time>2026-03-31T15:39:53Z</time></trkpt><trkpt lat="43.120210294786226" lon="-0.7276075687245677"><ele>280.0</ele><time>2026-03-31T15:39:54Z</time></trkpt><trkpt lat="43.120255422091795" lon="-0.7277100370102177"><ele>280.0</ele><time>2026-03-31T15:39:55Z</time></trkpt><trkpt lat="43.1203094121118" lon="-0.7278128549553193"><ele>280.0</ele><time>2026-03-31T15:39:56Z</time></trkpt><trkpt lat="43.12036750451843" lon="-0.7279078428673313"><ele>280.0</ele><time>2026-03-31T15:39:57Z</time></trkpt><trkpt lat="43.12043596711266" lon="-0.7279841157796546"><ele>280.0</ele><time>2026-03-31T15:39:58Z</time></trkpt><trkpt lat="43.12050734010992" lon="-0.7280371151192345"><ele>280.0</ele><time>2026-03-31T15:39:59Z</time></trkpt><trkpt lat="43.12057213084206" lon="-0.7280601457166167"><ele>280.0</ele><time>2026-03-31T15:40:00Z</time></trkpt><trkpt lat="43.12067575333028" lon="-0.7280599694517895"><ele>280.0</ele><time>2026-03-31T15:40:02Z</time></trkpt><trkpt lat="43.12073013952686" lon="-0.7280158631815522"><ele>280.0</ele><time>2026-03-31T15:40:04Z</time></trkpt><trkpt lat="43.12078811466765" lon="-0.7278984619864458"><ele>280.0</ele><time>2026-03-31T15:40:06Z</time></trkpt><trkpt lat="43.12086342665819" lon="-0.727771645797838"><ele>280.2</ele><time>2026-03-31T15:40:08Z</time></trkpt><trkpt lat="43.120932447471695" lon="-0.7276541980664202"><ele>280.4</ele><time>2026-03-31T15:40:10Z</time></trkpt><trkpt lat="43.12098113840502" lon="-0.7275759361668825"><ele>280.6</ele><time>2026-03-31T15:40:11Z</time></trkpt><trkpt lat="43.121041959610004" lon="-0.7274782013472885"><ele>280.8</ele><time>2026-03-31T15:40:12Z</time></trkpt><trkpt lat="43.12110860306201" lon="-0.7273797612273816"><ele>281.0</ele><time>2026-03-31T15:40:13Z</time></trkpt><trkpt lat="43.12117994425494" lon="-0.727279226145418"><ele>281.0</ele><time>2026-03-31T15:40:14Z</time></trkpt><trkpt lat="43.12126156549791" lon="-0.7271832923109639"><ele>281.0</ele><time>2026-03-31T15:40:15Z</time></trkpt><trkpt lat="43.12133828039895" lon="-0.727108602830877"><ele>281.0</ele><time>2026-03-31T15:40:16Z</time></trkpt><trkpt lat="43.12141565420846" lon="-0.7270360184878415"><ele>281.0</ele><time>2026-03-31T15:40:17Z</time></trkpt><trkpt lat="43.12148742399307" lon="-0.7269579669193066"><ele>281.0</ele><time>2026-03-31T15:40:18Z</time></trkpt><trkpt lat="43.12156015070302" lon="-0.7268788255951482"><ele>280.6</ele><time>2026-03-31T15:40:19Z</time></trkpt><trkpt lat="43.121634145523934" lon="-0.7268063909584428"><ele>280.20000000000005</ele><time>2026-03-31T15:40:20Z</time></trkpt><trkpt lat="43.12171802691025" lon="-0.7267408761187218"><ele>279.79999999999995</ele><time>2026-03-31T15:40:21Z</time></trkpt><trkpt lat="43.12181077068823" lon="-0.726691525252477"><ele>279.4</ele><time>2026-03-31T15:40:22Z</time></trkpt><trkpt lat="43.12190889445922" lon="-0.7266473148549477"><ele>279.0</ele><time>2026-03-31T15:40:23Z</time></trkpt><trkpt lat="43.122014558478554" lon="-0.7266053161436227"><ele>279.0</ele><time>2026-03-31T15:40:24Z</time></trkpt><trkpt lat="43.122113539753826" lon="-0.726570731264841"><ele>279.0</ele><time>2026-03-31T15:40:25Z</time></trkpt><trkpt lat="43.1222019063838" lon="-0.7265390830082987"><ele>279.0</ele><time>2026-03-31T15:40:26Z</time></trkpt><trkpt lat="43.12227545935256" lon="-0.7265128673995376"><ele>279.0</ele><time>2026-03-31T15:40:27Z</time></trkpt><trkpt lat="43.122342863001414" lon="-0.7264602644849616"><ele>279.0</ele><time>2026-03-31T15:40:28Z</time></trkpt><trkpt lat="43.12241456927916" lon="-0.7263951644421338"><ele>279.0</ele><time>2026-03-31T15:40:29Z</time></trkpt><trkpt lat="43.122474977808565" lon="-0.7263205557788287"><ele>278.25</ele><time>2026-03-31T15:40:30Z</time></trkpt><trkpt lat="43.12256446024745" lon="-0.7262214761385716"><ele>277.5</ele><time>2026-03-31T15:40:31Z</time></trkpt><trkpt lat="43.12266834400057" lon="-0.7261004298706781"><ele>276.75</ele><time>2026-03-31T15:40:32Z</time></trkpt><trkpt lat="43.12276368488536" lon="-0.7259812386998498"><ele>276.0</ele><time>2026-03-31T15:40:33Z</time></trkpt><trkpt lat="43.122861627655126" lon="-0.7258560557898417"><ele>276.0</ele><time>2026-03-31T15:40:34Z</time></trkpt><trkpt lat="43.12297326960874" lon="-0.72571424696252"><ele>276.0</ele><time>2026-03-31T15:40:35Z</time></trkpt><trkpt lat="43.12306719716203" lon="-0.7255894557514696"><ele>276.0</ele><time>2026-03-31T15:40:36Z</time></trkpt><trkpt lat="43.123146444183064" lon="-0.7254799527889333"><ele>276.0</ele><time>2026-03-31T15:40:37Z</time></trkpt><trkpt lat="43.1232157695121" lon="-0.7253791375033644"><ele>275.6666666666667</ele><time>2026-03-31T15:40:38Z</time></trkpt><trkpt lat="43.123278096404015" lon="-0.7252922472589588"><ele>275.3333333333333</ele><time>2026-03-31T15:40:39Z</time></trkpt><trkpt lat="43.12332336326591" lon="-0.7252230412410138"><ele>275.0</ele><time>2026-03-31T15:40:40Z</time></trkpt><trkpt lat="43.12335289148978" lon="-0.7251075576533628"><ele>274.66666666666663</ele><time>2026-03-31T15:40:42Z</time></trkpt><trkpt lat="43.12324968073396" lon="-0.7250444770944657"><ele>274.3333333333333</ele><time>2026-03-31T15:40:45Z</time></trkpt><trkpt lat="43.123193952349624" lon="-0.7249615999385803"><ele>274.0</ele><time>2026-03-31T15:40:48Z</time></trkpt><trkpt lat="43.123252358181496" lon="-0.7249286994724203"><ele>274.0</ele><time>2026-03-31T15:45:17Z</time></trkpt><trkpt lat="43.12323442911958" lon="-0.7248452621302183"><ele>274.0</ele><time>2026-03-31T15:45:32Z</time></trkpt><trkpt lat="43.12317379837315" lon="-0.7248161063936237"><ele>274.0</ele><time>2026-03-31T15:45:42Z</time></trkpt><trkpt lat="43.12314935789551" lon="-0.7247295146646484"><ele>274.0</ele><time>2026-03-31T15:46:09Z</time></trkpt><trkpt lat="43.12326778810756" lon="-0.7247688929348658"><ele>274.0</ele><time>2026-03-31T15:47:04.82Z</time></trkpt><trkpt lat="43.123316027322446" lon="-0.7248740486636125"><ele>274.0</ele><time>2026-03-31T15:47:09Z</time></trkpt><trkpt lat="43.12324781609034" lon="-0.7248563994464302"><ele>274.0</ele><time>2026-03-31T15:47:26Z</time></trkpt><trkpt lat="43.12316621643813" lon="-0.7247794173357651"><ele>274.0</ele><time>2026-03-31T15:47:39Z</time></trkpt><trkpt lat="43.12311776818024" lon="-0.7247200652434235"><ele>274.0</ele><time>2026-03-31T15:48:11Z</time></trkpt><trkpt lat="43.123209445780695" lon="-0.7247404221321356"><ele>274.0</ele><time>2026-03-31T15:48:26.521Z</time></trkpt><trkpt lat="43.123277101326245" lon="-0.7247746209465477"><ele>274.0</ele><time>2026-03-31T15:49:39.67Z</time></trkpt><trkpt lat="43.123198046522916" lon="-0.7247539127548904"><ele>274.0</ele><time>2026-03-31T15:49:52Z</time></trkpt><trkpt lat="43.123260305915" lon="-0.7247391525545253"><ele>274.0</ele><time>2026-03-31T15:50:02Z</time></trkpt><trkpt lat="43.12333107319018" lon="-0.7248015867218651"><ele>274.0</ele><time>2026-03-31T15:50:26Z</time></trkpt><trkpt lat="43.123350352264666" lon="-0.7248887599524677"><ele>274.0</ele><time>2026-03-31T15:50:39Z</time></trkpt><trkpt lat="43.12328722481546" lon="-0.7248214843822239"><ele>274.0</ele><time>2026-03-31T15:51:52Z</time></trkpt><trkpt lat="43.1232471977801" lon="-0.7248942278777681"><ele>274.0</ele><time>2026-03-31T15:51:59Z</time></trkpt><trkpt lat="43.123315643126155" lon="-0.7249734267726804"><ele>274.0</ele><time>2026-03-31T15:53:21Z</time></trkpt><trkpt lat="43.123381592825694" lon="-0.7250505566824026"><ele>274.0</ele><time>2026-03-31T15:53:23Z</time></trkpt><trkpt lat="43.123487572431294" lon="-0.7250015726409779"><ele>274.0</ele><time>2026-03-31T15:53:30Z</time></trkpt><trkpt lat="43.123552370909486" lon="-0.7248941188301384"><ele>274.0</ele><time>2026-03-31T15:53:31Z</time></trkpt><trkpt lat="43.12363001492248" lon="-0.7247758348885849"><ele>274.0</ele><time>2026-03-31T15:53:32Z</time></trkpt><trkpt lat="43.12370083401294" lon="-0.7246860126732161"><ele>274.0</ele><time>2026-03-31T15:53:33Z</time></trkpt><trkpt lat="43.12379152489817" lon="-0.7245716716512554"><ele>274.0</ele><time>2026-03-31T15:53:34Z</time></trkpt><trkpt lat="43.123904596319214" lon="-0.724412029407838"><ele>274.0</ele><time>2026-03-31T15:53:35Z</time></trkpt><trkpt lat="43.12403713692811" lon="-0.724209531439319"><ele>274.0</ele><time>2026-03-31T15:53:36Z</time></trkpt><trkpt lat="43.124173122860704" lon="-0.7239962409590366"><ele>273.66666666666663</ele><time>2026-03-31T15:53:37Z</time></trkpt><trkpt lat="43.12429513013503" lon="-0.7238049492562421"><ele>273.3333333333333</ele><time>2026-03-31T15:53:38Z</time></trkpt><trkpt lat="43.12440708177949" lon="-0.7236274582459338"><ele>273.0</ele><time>2026-03-31T15:53:39Z</time></trkpt><trkpt lat="43.12451458664253" lon="-0.7234543171929724"><ele>273.0</ele><time>2026-03-31T15:53:40Z</time></trkpt><trkpt lat="43.124615618234124" lon="-0.7232814410073043"><ele>273.0</ele><time>2026-03-31T15:53:41Z</time></trkpt><trkpt lat="43.12473698535175" lon="-0.7230890502406347"><ele>273.0</ele><time>2026-03-31T15:53:42Z</time></trkpt><trkpt lat="43.12487922329155" lon="-0.7228795855327814"><ele>272.6666666666667</ele><time>2026-03-31T15:53:43Z</time></trkpt><trkpt lat="43.125010936636436" lon="-0.7226753642809878"><ele>272.33333333333337</ele><time>2026-03-31T15:53:44Z</time></trkpt><trkpt lat="43.12513998654607" lon="-0.722465650201781"><ele>272.0</ele><time>2026-03-31T15:53:45Z</time></trkpt><trkpt lat="43.12528117387876" lon="-0.7222521940495926"><ele>272.0</ele><time>2026-03-31T15:53:46Z</time></trkpt><trkpt lat="43.1254288074347" lon="-0.722039937369062"><ele>272.0</ele><time>2026-03-31T15:53:47Z</time></trkpt><trkpt lat="43.12557675727218" lon="-0.7218210441652083"><ele>272.0</ele><time>2026-03-31T15:53:48Z</time></trkpt><trkpt lat="43.12572626485709" lon="-0.7215937225486303"><ele>270.5</ele><time>2026-03-31T15:53:49Z</time></trkpt><trkpt lat="43.12587857293768" lon="-0.7213639458882701"><ele>269.0</ele><time>2026-03-31T15:53:50Z</time></trkpt><trkpt lat="43.126028429118165" lon="-0.7211327334506261"><ele>269.6666666666667</ele><time>2026-03-31T15:53:51Z</time></trkpt><trkpt lat="43.12617602565591" lon="-0.7209005423397397"><ele>270.3333333333333</ele><time>2026-03-31T15:53:52Z</time></trkpt><trkpt lat="43.12631865571965" lon="-0.7206651241107663"><ele>271.0</ele><time>2026-03-31T15:53:53Z</time></trkpt><trkpt lat="43.126449098350506" lon="-0.7204186354429957"><ele>270.0</ele><time>2026-03-31T15:53:54Z</time></trkpt><trkpt lat="43.126567347482094" lon="-0.7201565399287368"><ele>269.0</ele><time>2026-03-31T15:53:55Z</time></trkpt><trkpt lat="43.1266736957599" lon="-0.7198860399314732"><ele>268.0</ele><time>2026-03-31T15:53:56Z</time></trkpt><trkpt lat="43.126775429282354" lon="-0.7196029441014897"><ele>268.0</ele><time>2026-03-31T15:53:57Z</time></trkpt><trkpt lat="43.12686034972974" lon="-0.7193073094700363"><ele>268.0</ele><time>2026-03-31T15:53:58Z</time></trkpt><trkpt lat="43.126933892188596" lon="-0.719003488477249"><ele>268.0</ele><time>2026-03-31T15:53:59Z</time></trkpt><trkpt lat="43.12698882922173" lon="-0.7186863232469827"><ele>268.0</ele><time>2026-03-31T15:54:00Z</time></trkpt><trkpt lat="43.12703924756864" lon="-0.7183637743628435"><ele>268.0</ele><time>2026-03-31T15:54:01Z</time></trkpt><trkpt lat="43.12708496348171" lon="-0.7180476415799778"><ele>268.0</ele><time>2026-03-31T15:54:02Z</time></trkpt><trkpt lat="43.12711605411578" lon="-0.7177175167554886"><ele>268.0</ele><time>2026-03-31T15:54:03Z</time></trkpt><trkpt lat="43.12714918271488" lon="-0.7173812290453614"><ele>268.0</ele><time>2026-03-31T15:54:04Z</time></trkpt><trkpt lat="43.12719050680331" lon="-0.7170196166679341"><ele>267.5</ele><time>2026-03-31T15:54:05Z</time></trkpt><trkpt lat="43.12723495593815" lon="-0.7166781916373948"><ele>267.0</ele><time>2026-03-31T15:54:06Z</time></trkpt><trkpt lat="43.1272774155326" lon="-0.7163442771591478"><ele>266.5</ele><time>2026-03-31T15:54:07Z</time></trkpt><trkpt lat="43.127319699769295" lon="-0.716012202693753"><ele>266.0</ele><time>2026-03-31T15:54:08Z</time></trkpt><trkpt lat="43.1273622988915" lon="-0.7156796331142861"><ele>264.5</ele><time>2026-03-31T15:54:09Z</time></trkpt><trkpt lat="43.12740849836958" lon="-0.7153497891377752"><ele>263.0</ele><time>2026-03-31T15:54:10Z</time></trkpt><trkpt lat="43.1274524873448" lon="-0.7150199460363877"><ele>262.5</ele><time>2026-03-31T15:54:11Z</time></trkpt><trkpt lat="43.12749333914142" lon="-0.7146947379227152"><ele>262.0</ele><time>2026-03-31T15:54:12Z</time></trkpt><trkpt lat="43.12753467973491" lon="-0.7143747990786187"><ele>261.0</ele><time>2026-03-31T15:54:13Z</time></trkpt><trkpt lat="43.12757547962321" lon="-0.714061454842251"><ele>260.0</ele><time>2026-03-31T15:54:14Z</time></trkpt><trkpt lat="43.127615245153045" lon="-0.7137535239112801"><ele>260.0</ele><time>2026-03-31T15:54:15Z</time></trkpt><trkpt lat="43.127649952457155" lon="-0.7134473996041534"><ele>260.0</ele><time>2026-03-31T15:54:16Z</time></trkpt><trkpt lat="43.127689270517294" lon="-0.7131485818588595"><ele>260.0</ele><time>2026-03-31T15:54:17Z</time></trkpt><trkpt lat="43.127731620973165" lon="-0.7128539076161092"><ele>260.33333333333337</ele><time>2026-03-31T15:54:18Z</time></trkpt><trkpt lat="43.12777170825365" lon="-0.7125644155047981"><ele>260.6666666666667</ele><time>2026-03-31T15:54:19Z</time></trkpt><trkpt lat="43.12780527424681" lon="-0.7122780484019493"><ele>261.0</ele><time>2026-03-31T15:54:20Z</time></trkpt><trkpt lat="43.12783753909217" lon="-0.7119935565679635"><ele>261.0</ele><time>2026-03-31T15:54:21Z</time></trkpt><trkpt lat="43.127871016048246" lon="-0.711713812002975"><ele>261.0</ele><time>2026-03-31T15:54:22Z</time></trkpt><trkpt lat="43.12790528279414" lon="-0.711439006643419"><ele>261.0</ele><time>2026-03-31T15:54:23Z</time></trkpt><trkpt lat="43.127945143084595" lon="-0.7111682484989803"><ele>261.6666666666667</ele><time>2026-03-31T15:54:24Z</time></trkpt><trkpt lat="43.1279887634436" lon="-0.7108992513825588"><ele>262.33333333333337</ele><time>2026-03-31T15:54:25Z</time></trkpt><trkpt lat="43.12804244112438" lon="-0.7106357479212946"><ele>263.0</ele><time>2026-03-31T15:54:26Z</time></trkpt><trkpt lat="43.128110753976266" lon="-0.7103811736889376"><ele>262.0</ele><time>2026-03-31T15:54:27Z</time></trkpt><trkpt lat="43.12820040032909" lon="-0.7101349823960414"><ele>261.0</ele><time>2026-03-31T15:54:28Z</time></trkpt><trkpt lat="43.128307250674915" lon="-0.7099070374014926"><ele>260.0</ele><time>2026-03-31T15:54:29Z</time></trkpt><trkpt lat="43.12843081932991" lon="-0.7096915855449248"><ele>260.0</ele><time>2026-03-31T15:54:30Z</time></trkpt><trkpt lat="43.128567183271436" lon="-0.7094925293784121"><ele>260.0</ele><time>2026-03-31T15:54:31Z</time></trkpt><trkpt lat="43.128713127739076" lon="-0.7093040405836807"><ele>260.0</ele><time>2026-03-31T15:54:32Z</time></trkpt><trkpt lat="43.12886921692618" lon="-0.7091331155917704"><ele>261.0</ele><time>2026-03-31T15:54:33Z</time></trkpt><trkpt lat="43.12903517527687" lon="-0.708992677870331"><ele>262.0</ele><time>2026-03-31T15:54:34Z</time></trkpt><trkpt lat="43.129208940085896" lon="-0.7088701162189591"><ele>263.0</ele><time>2026-03-31T15:54:35Z</time></trkpt><trkpt lat="43.12937765521106" lon="-0.7087414808390727"><ele>263.0</ele><time>2026-03-31T15:54:36Z</time></trkpt><trkpt lat="43.1295419571042" lon="-0.7086069895587704"><ele>263.0</ele><time>2026-03-31T15:54:37Z</time></trkpt><trkpt lat="43.12970905100013" lon="-0.708467940548554"><ele>263.0</ele><time>2026-03-31T15:54:38Z</time></trkpt><trkpt lat="43.12987701943799" lon="-0.7083321412493173"><ele>262.0</ele><time>2026-03-31T15:54:39Z</time></trkpt><trkpt lat="43.13004448545496" lon="-0.708195457795544"><ele>261.0</ele><time>2026-03-31T15:54:40Z</time></trkpt><trkpt lat="43.130211172070524" lon="-0.708056750004621"><ele>260.0</ele><time>2026-03-31T15:54:41Z</time></trkpt><trkpt lat="43.130383451488434" lon="-0.7079184772616992"><ele>260.0</ele><time>2026-03-31T15:54:42Z</time></trkpt><trkpt lat="43.13055644554916" lon="-0.7077826027191757"><ele>260.0</ele><time>2026-03-31T15:54:43Z</time></trkpt><trkpt lat="43.13072506045439" lon="-0.707645915857022"><ele>260.0</ele><time>2026-03-31T15:54:44Z</time></trkpt><trkpt lat="43.13089300449136" lon="-0.7075099139039409"><ele>260.33333333333337</ele><time>2026-03-31T15:54:45Z</time></trkpt><trkpt lat="43.131058800277444" lon="-0.7073758679561803"><ele>260.6666666666667</ele><time>2026-03-31T15:54:46Z</time></trkpt><trkpt lat="43.13122404345729" lon="-0.7072463791755867"><ele>261.0</ele><time>2026-03-31T15:54:47Z</time></trkpt><trkpt lat="43.13138828000297" lon="-0.7071134778135769"><ele>261.0</ele><time>2026-03-31T15:54:48Z</time></trkpt><trkpt lat="43.131550579918475" lon="-0.7069718574331775"><ele>261.0</ele><time>2026-03-31T15:54:49Z</time></trkpt><trkpt lat="43.13170079419294" lon="-0.7068124991036133"><ele>261.0</ele><time>2026-03-31T15:54:50Z</time></trkpt><trkpt lat="43.13184016155018" lon="-0.7066303376610649"><ele>260.3333333333333</ele><time>2026-03-31T15:54:51Z</time></trkpt><trkpt lat="43.13196888406326" lon="-0.7064391389001116"><ele>259.66666666666663</ele><time>2026-03-31T15:54:52Z</time></trkpt><trkpt lat="43.13209880320057" lon="-0.7062460662924337"><ele>259.0</ele><time>2026-03-31T15:54:53Z</time></trkpt><trkpt lat="43.13222373983026" lon="-0.7060538995399435"><ele>259.0</ele><time>2026-03-31T15:54:54Z</time></trkpt><trkpt lat="43.132349752291404" lon="-0.7058646930407579"><ele>259.0</ele><time>2026-03-31T15:54:55Z</time></trkpt><trkpt lat="43.132475272038356" lon="-0.7056769789844215"><ele>259.0</ele><time>2026-03-31T15:54:56Z</time></trkpt><trkpt lat="43.132600540454696" lon="-0.7054969469811837"><ele>259.0</ele><time>2026-03-31T15:54:57Z</time></trkpt><trkpt lat="43.132727821070375" lon="-0.7053172975055655"><ele>259.0</ele><time>2026-03-31T15:54:58Z</time></trkpt><trkpt lat="43.13285805867817" lon="-0.7051459898662357"><ele>259.0</ele><time>2026-03-31T15:54:59Z</time></trkpt><trkpt lat="43.132982580198544" lon="-0.7049816762954291"><ele>258.3333333333333</ele><time>2026-03-31T15:55:00Z</time></trkpt><trkpt lat="43.13309915934207" lon="-0.704810673114832"><ele>257.6666666666667</ele><time>2026-03-31T15:55:01Z</time></trkpt><trkpt lat="43.13321564889651" lon="-0.7046333565673149"><ele>257.0</ele><time>2026-03-31T15:55:02Z</time></trkpt><trkpt lat="43.13333999548728" lon="-0.704440829497437"><ele>259.0</ele><time>2026-03-31T15:55:03Z</time></trkpt><trkpt lat="43.13346536172404" lon="-0.7042324092607559"><ele>261.0</ele><time>2026-03-31T15:55:04Z</time></trkpt><trkpt lat="43.1335777940427" lon="-0.7040189562684726"><ele>263.0</ele><time>2026-03-31T15:55:05Z</time></trkpt><trkpt lat="43.133680953881594" lon="-0.7038027224112844"><ele>263.0</ele><time>2026-03-31T15:55:06Z</time></trkpt><trkpt lat="43.1337776723831" lon="-0.7035833804977303"><ele>263.0</ele><time>2026-03-31T15:55:07Z</time></trkpt><trkpt lat="43.133857936009136" lon="-0.7033526662292756"><ele>263.0</ele><time>2026-03-31T15:55:08Z</time></trkpt><trkpt lat="43.13393274926282" lon="-0.7031187718142392"><ele>262.0</ele><time>2026-03-31T15:55:09Z</time></trkpt><trkpt lat="43.13402145179112" lon="-0.7028942963141764"><ele>261.0</ele><time>2026-03-31T15:55:10Z</time></trkpt><trkpt lat="43.13413023613312" lon="-0.7026849353250464"><ele>260.0</ele><time>2026-03-31T15:55:11Z</time></trkpt><trkpt lat="43.13424463628688" lon="-0.7024806402939996"><ele>260.0</ele><time>2026-03-31T15:55:12Z</time></trkpt><trkpt lat="43.134360547781945" lon="-0.7022730457459117"><ele>260.0</ele><time>2026-03-31T15:55:13Z</time></trkpt><trkpt lat="43.13449689022021" lon="-0.7020700274529588"><ele>260.0</ele><time>2026-03-31T15:55:14Z</time></trkpt><trkpt lat="43.13466141698307" lon="-0.7018772018086531"><ele>258.6666666666667</ele><time>2026-03-31T15:55:15Z</time></trkpt><trkpt lat="43.134835100323336" lon="-0.7016982770128628"><ele>257.3333333333333</ele><time>2026-03-31T15:55:16Z</time></trkpt><trkpt lat="43.135008602632986" lon="-0.7015159133749314"><ele>256.0</ele><time>2026-03-31T15:55:17Z</time></trkpt><trkpt lat="43.13517818805534" lon="-0.701328994817416"><ele>256.0</ele><time>2026-03-31T15:55:18Z</time></trkpt><trkpt lat="43.13534583002916" lon="-0.7011423092331843"><ele>256.0</ele><time>2026-03-31T15:55:19Z</time></trkpt><trkpt lat="43.13551746768525" lon="-0.7009614391148727"><ele>256.0</ele><time>2026-03-31T15:55:20Z</time></trkpt><trkpt lat="43.13569148900451" lon="-0.7007823200084919"><ele>256.0</ele><time>2026-03-31T15:55:21Z</time></trkpt><trkpt lat="43.13586870814477" lon="-0.7005967774989822"><ele>256.0</ele><time>2026-03-31T15:55:22Z</time></trkpt><trkpt lat="43.13604893495192" lon="-0.7004146159106934"><ele>256.0</ele><time>2026-03-31T15:55:23Z</time></trkpt><trkpt lat="43.136229886764355" lon="-0.7002294006893527"><ele>256.0</ele><time>2026-03-31T15:55:24Z</time></trkpt><trkpt lat="43.136403838562515" lon="-0.7000312785201281"><ele>256.0</ele><time>2026-03-31T15:55:25Z</time></trkpt><trkpt lat="43.13656678059868" lon="-0.6998079733117599"><ele>257.5</ele><time>2026-03-31T15:55:26Z</time></trkpt><trkpt lat="43.136716062246236" lon="-0.6995653482058358"><ele>259.0</ele><time>2026-03-31T15:55:27Z</time></trkpt><trkpt lat="43.13685664718783" lon="-0.6992951214988323"><ele>259.0</ele><time>2026-03-31T15:55:28Z</time></trkpt><trkpt lat="43.13699074406197" lon="-0.69899467495073"><ele>259.0</ele><time>2026-03-31T15:55:29Z</time></trkpt><trkpt lat="43.13710891371568" lon="-0.6986712200733813"><ele>256.5</ele><time>2026-03-31T15:55:30Z</time></trkpt><trkpt lat="43.13720430282254" lon="-0.698350244291818"><ele>254.0</ele><time>2026-03-31T15:55:31Z</time></trkpt><trkpt lat="43.13729629039542" lon="-0.698031504496184"><ele>257.0</ele><time>2026-03-31T15:55:32Z</time></trkpt><trkpt lat="43.137416900213736" lon="-0.6977271205447254"><ele>260.0</ele><time>2026-03-31T15:55:33Z</time></trkpt><trkpt lat="43.137572741243666" lon="-0.6974492294148394"><ele>260.0</ele><time>2026-03-31T15:55:34Z</time></trkpt><trkpt lat="43.1377508164343" lon="-0.6971961609413929"><ele>260.0</ele><time>2026-03-31T15:55:35Z</time></trkpt><trkpt lat="43.13794573526817" lon="-0.6969663561216438"><ele>258.5</ele><time>2026-03-31T15:55:36Z</time></trkpt><trkpt lat="43.138157750688784" lon="-0.6967652957973004"><ele>257.0</ele><time>2026-03-31T15:55:37Z</time></trkpt><trkpt lat="43.13838512213027" lon="-0.6966038031836952"><ele>257.0</ele><time>2026-03-31T15:55:38Z</time></trkpt><trkpt lat="43.138633930145524" lon="-0.6964573326217667"><ele>257.0</ele><time>2026-03-31T15:55:39Z</time></trkpt><trkpt lat="43.138890117284305" lon="-0.6963208293387707"><ele>256.0</ele><time>2026-03-31T15:55:40Z</time></trkpt><trkpt lat="43.1391213844824" lon="-0.6961831926038513"><ele>255.0</ele><time>2026-03-31T15:55:41Z</time></trkpt><trkpt lat="43.1393320803603" lon="-0.6960470087113886"><ele>254.66666666666669</ele><time>2026-03-31T15:55:42Z</time></trkpt><trkpt lat="43.13952107159744" lon="-0.6959214671011067"><ele>254.33333333333334</ele><time>2026-03-31T15:55:43Z</time></trkpt><trkpt lat="43.13969425373899" lon="-0.6958010385652583"><ele>254.0</ele><time>2026-03-31T15:55:44Z</time></trkpt><trkpt lat="43.13984885853378" lon="-0.695689237054416"><ele>253.66666666666669</ele><time>2026-03-31T15:55:45Z</time></trkpt><trkpt lat="43.13999715927723" lon="-0.6955768791131964"><ele>253.33333333333331</ele><time>2026-03-31T15:55:46Z</time></trkpt><trkpt lat="43.14017743573523" lon="-0.6954419144047554"><ele>253.0</ele><time>2026-03-31T15:55:47Z</time></trkpt><trkpt lat="43.1403929076403" lon="-0.6952970623603583"><ele>252.5</ele><time>2026-03-31T15:55:48Z</time></trkpt><trkpt lat="43.1406369769818" lon="-0.6951389575967207"><ele>252.0</ele><time>2026-03-31T15:55:49Z</time></trkpt><trkpt lat="43.14085766573012" lon="-0.6949880954390503"><ele>252.0</ele><time>2026-03-31T15:55:50Z</time></trkpt><trkpt lat="43.141065698777524" lon="-0.6948390957368968"><ele>252.0</ele><time>2026-03-31T15:55:51Z</time></trkpt><trkpt lat="43.141280250562396" lon="-0.6946839207995604"><ele>252.0</ele><time>2026-03-31T15:55:52Z</time></trkpt><trkpt lat="43.14149413511516" lon="-0.6945282730210391"><ele>252.0</ele><time>2026-03-31T15:55:53Z</time></trkpt><trkpt lat="43.14171099426106" lon="-0.6943719282259051"><ele>253.0</ele><time>2026-03-31T15:55:54Z</time></trkpt><trkpt lat="43.14192910365251" lon="-0.6942115730452724"><ele>254.0</ele><time>2026-03-31T15:55:55Z</time></trkpt><trkpt lat="43.142144085643814" lon="-0.6940508967362515"><ele>254.0</ele><time>2026-03-31T15:55:56Z</time></trkpt><trkpt lat="43.14235675165811" lon="-0.6938865758752087"><ele>254.0</ele><time>2026-03-31T15:55:57Z</time></trkpt><trkpt lat="43.142564742768016" lon="-0.6937204099610931"><ele>254.0</ele><time>2026-03-31T15:55:58Z</time></trkpt><trkpt lat="43.14277433612393" lon="-0.6935490899390562"><ele>254.0</ele><time>2026-03-31T15:55:59Z</time></trkpt><trkpt lat="43.14298132693194" lon="-0.6933830691655012"><ele>254.0</ele><time>2026-03-31T15:56:00Z</time></trkpt><trkpt lat="43.14318989855326" lon="-0.69321790523171"><ele>254.0</ele><time>2026-03-31T15:56:01Z</time></trkpt><trkpt lat="43.14339109596776" lon="-0.6930588516302217"><ele>253.0</ele><time>2026-03-31T15:56:02Z</time></trkpt><trkpt lat="43.143570495510076" lon="-0.6929082365107434"><ele>252.0</ele><time>2026-03-31T15:56:03Z</time></trkpt><trkpt lat="43.14373699087841" lon="-0.6927670428618039"><ele>251.0</ele><time>2026-03-31T15:56:04Z</time></trkpt><trkpt lat="43.14390518015214" lon="-0.6926302630117844"><ele>251.33333333333334</ele><time>2026-03-31T15:56:05Z</time></trkpt><trkpt lat="43.14405260147989" lon="-0.6925279408179316"><ele>251.66666666666669</ele><time>2026-03-31T15:56:06Z</time></trkpt><trkpt lat="43.14418971128953" lon="-0.6924513906839572"><ele>252.0</ele><time>2026-03-31T15:56:07Z</time></trkpt><trkpt lat="43.14435054292176" lon="-0.6924075933258143"><ele>252.0</ele><time>2026-03-31T15:56:08Z</time></trkpt><trkpt lat="43.14451747927194" lon="-0.6924103591003997"><ele>252.0</ele><time>2026-03-31T15:56:09Z</time></trkpt><trkpt lat="43.144679238356076" lon="-0.6924415799179505"><ele>252.0</ele><time>2026-03-31T15:56:10Z</time></trkpt><trkpt lat="43.144803235233105" lon="-0.6924743386195498"><ele>252.39999999999998</ele><time>2026-03-31T15:56:11Z</time></trkpt><trkpt lat="43.14489790545587" lon="-0.6924778608855185"><ele>252.79999999999998</ele><time>2026-03-31T15:56:12Z</time></trkpt><trkpt lat="43.1449951337159" lon="-0.6924360554135799"><ele>253.2</ele><time>2026-03-31T15:56:13Z</time></trkpt><trkpt lat="43.145093422188566" lon="-0.6923640418793743"><ele>253.6</ele><time>2026-03-31T15:56:14Z</time></trkpt><trkpt lat="43.14517099757765" lon="-0.6922746309343426"><ele>254.0</ele><time>2026-03-31T15:56:15Z</time></trkpt><trkpt lat="43.145223411417206" lon="-0.6921769535906478"><ele>254.00000000000003</ele><time>2026-03-31T15:56:16Z</time></trkpt><trkpt lat="43.145260252250225" lon="-0.6920762526795182"><ele>254.0</ele><time>2026-03-31T15:56:17Z</time></trkpt><trkpt lat="43.145306786611954" lon="-0.6919521023340072"><ele>254.0</ele><time>2026-03-31T15:56:18Z</time></trkpt><trkpt lat="43.14535774164107" lon="-0.6918519062868312"><ele>254.0</ele><time>2026-03-31T15:56:19Z</time></trkpt><trkpt lat="43.145407283695015" lon="-0.6917889561962717"><ele>254.00000000000003</ele><time>2026-03-31T15:56:20Z</time></trkpt><trkpt lat="43.14547257869218" lon="-0.6917429549017386"><ele>254.0</ele><time>2026-03-31T15:56:21Z</time></trkpt><trkpt lat="43.14557119892646" lon="-0.6916450915842829"><ele>253.33333333333334</ele><time>2026-03-31T15:56:22Z</time></trkpt><trkpt lat="43.14571232005098" lon="-0.6915779019873644"><ele>252.66666666666669</ele><time>2026-03-31T15:56:23Z</time></trkpt><trkpt lat="43.145867666171036" lon="-0.6914764692410639"><ele>252.0</ele><time>2026-03-31T15:56:24Z</time></trkpt><trkpt lat="43.14602776837047" lon="-0.6913730770820151"><ele>252.0</ele><time>2026-03-31T15:56:25Z</time></trkpt><trkpt lat="43.146197000204815" lon="-0.6912702104042779"><ele>252.0</ele><time>2026-03-31T15:56:26Z</time></trkpt><trkpt lat="43.14636454517035" lon="-0.6911741697846958"><ele>252.0</ele><time>2026-03-31T15:56:27Z</time></trkpt><trkpt lat="43.14651883373649" lon="-0.6910890311791279"><ele>251.66666666666669</ele><time>2026-03-31T15:56:28Z</time></trkpt><trkpt lat="43.14665944548521" lon="-0.6910027859449933"><ele>251.33333333333334</ele><time>2026-03-31T15:56:29Z</time></trkpt><trkpt lat="43.14679110103654" lon="-0.6909173432069579"><ele>251.0</ele><time>2026-03-31T15:56:30Z</time></trkpt><trkpt lat="43.14693048190462" lon="-0.6908374334707957"><ele>251.0</ele><time>2026-03-31T15:56:31Z</time></trkpt><trkpt lat="43.147098961590224" lon="-0.6907526447448359"><ele>251.0</ele><time>2026-03-31T15:56:32Z</time></trkpt><trkpt lat="43.147293426700934" lon="-0.6906394151383097"><ele>251.0</ele><time>2026-03-31T15:56:33Z</time></trkpt><trkpt lat="43.14751332506291" lon="-0.6905140794060173"><ele>250.5</ele><time>2026-03-31T15:56:34Z</time></trkpt><trkpt lat="43.14774393599149" lon="-0.690391248232875"><ele>250.0</ele><time>2026-03-31T15:56:35Z</time></trkpt><trkpt lat="43.147977328477516" lon="-0.6902595180618992"><ele>248.5</ele><time>2026-03-31T15:56:36Z</time></trkpt><trkpt lat="43.14821550781601" lon="-0.6901265663519693"><ele>247.0</ele><time>2026-03-31T15:56:37Z</time></trkpt><trkpt lat="43.14846606221437" lon="-0.6899883167172677"><ele>247.0</ele><time>2026-03-31T15:56:38Z</time></trkpt><trkpt lat="43.148726797782174" lon="-0.6898462466564691"><ele>247.0</ele><time>2026-03-31T15:56:39Z</time></trkpt><trkpt lat="43.1489930018363" lon="-0.6896983450024701"><ele>247.0</ele><time>2026-03-31T15:56:40Z</time></trkpt><trkpt lat="43.149258484708795" lon="-0.6895510702712161"><ele>247.0</ele><time>2026-03-31T15:56:41Z</time></trkpt><trkpt lat="43.14953452996862" lon="-0.6894009228117896"><ele>247.0</ele><time>2026-03-31T15:56:42Z</time></trkpt><trkpt lat="43.149817963345605" lon="-0.6892463495152165"><ele>247.0</ele><time>2026-03-31T15:56:43Z</time></trkpt><trkpt lat="43.15010309087044" lon="-0.6890902003646266"><ele>247.0</ele><time>2026-03-31T15:56:44Z</time></trkpt><trkpt lat="43.15038790369251" lon="-0.6889335143233503"><ele>247.0</ele><time>2026-03-31T15:56:45Z</time></trkpt><trkpt lat="43.15061547860604" lon="-0.6888083020342731"><ele>246.5</ele><time>2026-03-31T15:56:46Z</time></trkpt><trkpt lat="43.15086400806247" lon="-0.6886680267192047"><ele>246.0</ele><time>2026-03-31T15:56:47Z</time></trkpt><trkpt lat="43.15110973599958" lon="-0.688543843988885"><ele>245.5</ele><time>2026-03-31T15:56:48Z</time></trkpt><trkpt lat="43.15133799012673" lon="-0.688394396502723"><ele>245.0</ele><time>2026-03-31T15:56:49Z</time></trkpt><trkpt lat="43.151636288085406" lon="-0.6882328986756764"><ele>243.5</ele><time>2026-03-31T15:56:50Z</time></trkpt><trkpt lat="43.15188628750912" lon="-0.6880930558774432"><ele>242.0</ele><time>2026-03-31T15:56:51Z</time></trkpt><trkpt lat="43.15211510234931" lon="-0.6879641898939405"><ele>242.0</ele><time>2026-03-31T15:56:52Z</time></trkpt><trkpt lat="43.15230562573993" lon="-0.6878550946892501"><ele>242.0</ele><time>2026-03-31T15:56:53Z</time></trkpt><trkpt lat="43.152469553126046" lon="-0.6877639483195479"><ele>242.0</ele><time>2026-03-31T15:56:54Z</time></trkpt><trkpt lat="43.15260584882998" lon="-0.6876881033484654"><ele>242.2</ele><time>2026-03-31T15:56:55Z</time></trkpt><trkpt lat="43.15273188133" lon="-0.6876182406092302"><ele>242.39999999999998</ele><time>2026-03-31T15:56:56Z</time></trkpt><trkpt lat="43.152831417032246" lon="-0.6875700059911958"><ele>242.60000000000002</ele><time>2026-03-31T15:56:57Z</time></trkpt><trkpt lat="43.15293030267155" lon="-0.6875347852778152"><ele>242.8</ele><time>2026-03-31T15:56:58Z</time></trkpt><trkpt lat="43.153031807305254" lon="-0.6874989953092668"><ele>243.0</ele><time>2026-03-31T15:56:59Z</time></trkpt><trkpt lat="43.15314498006736" lon="-0.687458261900136"><ele>243.5</ele><time>2026-03-31T15:57:00Z</time></trkpt><trkpt lat="43.153258632769045" lon="-0.6874183379515968"><ele>244.0</ele><time>2026-03-31T15:57:01Z</time></trkpt><trkpt lat="43.153364606377" lon="-0.6873777714782815"><ele>244.5</ele><time>2026-03-31T15:57:02Z</time></trkpt><trkpt lat="43.15347614507326" lon="-0.6873353823062026"><ele>245.0</ele><time>2026-03-31T15:57:03Z</time></trkpt><trkpt lat="43.153591805882954" lon="-0.6872913082562744"><ele>245.0</ele><time>2026-03-31T15:57:04Z</time></trkpt><trkpt lat="43.15371110355111" lon="-0.6872479641048926"><ele>245.0</ele><time>2026-03-31T15:57:05Z</time></trkpt><trkpt lat="43.1538300419285" lon="-0.6872124966034076"><ele>245.0</ele><time>2026-03-31T15:57:06Z</time></trkpt><trkpt lat="43.153952808616495" lon="-0.6871904766645062"><ele>245.0</ele><time>2026-03-31T15:57:07Z</time></trkpt><trkpt lat="43.15407951801116" lon="-0.6871910992513812"><ele>245.5</ele><time>2026-03-31T15:57:08Z</time></trkpt><trkpt lat="43.154204964604226" lon="-0.6872233069177114"><ele>246.0</ele><time>2026-03-31T15:57:09Z</time></trkpt><trkpt lat="43.15432649726221" lon="-0.6872733700799789"><ele>246.5</ele><time>2026-03-31T15:57:10Z</time></trkpt><trkpt lat="43.15443858170053" lon="-0.6873481389282734"><ele>247.0</ele><time>2026-03-31T15:57:11Z</time></trkpt><trkpt lat="43.15453896568272" lon="-0.6874579425738699"><ele>247.0</ele><time>2026-03-31T15:57:12Z</time></trkpt><trkpt lat="43.15463414438292" lon="-0.6875570868961073"><ele>247.0</ele><time>2026-03-31T15:57:13Z</time></trkpt><trkpt lat="43.1547233093605" lon="-0.6876387994608977"><ele>247.0</ele><time>2026-03-31T15:57:14Z</time></trkpt><trkpt lat="43.15480317036731" lon="-0.6876886210180571"><ele>247.0</ele><time>2026-03-31T15:57:15Z</time></trkpt><trkpt lat="43.154877081887115" lon="-0.6877181202015494"><ele>247.0</ele><time>2026-03-31T15:57:16Z</time></trkpt><trkpt lat="43.15495126919931" lon="-0.6877353426811874"><ele>247.0</ele><time>2026-03-31T15:57:17Z</time></trkpt><trkpt lat="43.15501984406224" lon="-0.6877402042261965"><ele>247.0</ele><time>2026-03-31T15:57:18Z</time></trkpt><trkpt lat="43.155148723615085" lon="-0.6877413534842853"><ele>247.0</ele><time>2026-03-31T15:57:20Z</time></trkpt><trkpt lat="43.15521667010777" lon="-0.6877442081519318"><ele>247.0</ele><time>2026-03-31T15:57:21Z</time></trkpt><trkpt lat="43.15533789908848" lon="-0.6877571782886553"><ele>247.0</ele><time>2026-03-31T15:57:23Z</time></trkpt><trkpt lat="43.15540506600637" lon="-0.6877646856701802"><ele>247.0</ele><time>2026-03-31T15:57:24Z</time></trkpt><trkpt lat="43.155474581037325" lon="-0.6877731132936297"><ele>247.0</ele><time>2026-03-31T15:57:25Z</time></trkpt><trkpt lat="43.15554394306697" lon="-0.6877815354549435"><ele>247.0</ele><time>2026-03-31T15:57:26Z</time></trkpt><trkpt lat="43.155612935560605" lon="-0.6877928329675639"><ele>247.0</ele><time>2026-03-31T15:57:27Z</time></trkpt><trkpt lat="43.15568157379007" lon="-0.6878079679318843"><ele>247.0</ele><time>2026-03-31T15:57:28Z</time></trkpt><trkpt lat="43.155754390356925" lon="-0.6878253575131399"><ele>247.0</ele><time>2026-03-31T15:57:29Z</time></trkpt><trkpt lat="43.15582900393472" lon="-0.6878425564031451"><ele>247.0</ele><time>2026-03-31T15:57:30Z</time></trkpt><trkpt lat="43.15590821548653" lon="-0.6878618608160838"><ele>246.99999999999997</ele><time>2026-03-31T15:57:31Z</time></trkpt><trkpt lat="43.15598634156866" lon="-0.6878783766007582"><ele>247.0</ele><time>2026-03-31T15:57:32Z</time></trkpt><trkpt lat="43.15606693227422" lon="-0.6878941076808083"><ele>247.0</ele><time>2026-03-31T15:57:33Z</time></trkpt><trkpt lat="43.156147386487056" lon="-0.6879076002691761"><ele>247.0</ele><time>2026-03-31T15:57:34Z</time></trkpt><trkpt lat="43.15623530990461" lon="-0.6879224378203767"><ele>246.99999999999997</ele><time>2026-03-31T15:57:35Z</time></trkpt><trkpt lat="43.15632491617588" lon="-0.6879352884314516"><ele>247.0</ele><time>2026-03-31T15:57:36Z</time></trkpt><trkpt lat="43.15642004259258" lon="-0.6879515407475176"><ele>247.0</ele><time>2026-03-31T15:57:37Z</time></trkpt><trkpt lat="43.156519010154504" lon="-0.6879626367608621"><ele>247.0</ele><time>2026-03-31T15:57:38Z</time></trkpt><trkpt lat="43.15661828759322" lon="-0.6879820173466661"><ele>247.0</ele><time>2026-03-31T15:57:39Z</time></trkpt><trkpt lat="43.156720985038014" lon="-0.6879985583470598"><ele>247.0</ele><time>2026-03-31T15:57:40Z</time></trkpt><trkpt lat="43.15682994860579" lon="-0.6880140665602514"><ele>247.0</ele><time>2026-03-31T15:57:41Z</time></trkpt><trkpt lat="43.1569374922509" lon="-0.6880278037127092"><ele>247.0</ele><time>2026-03-31T15:57:42Z</time></trkpt><trkpt lat="43.157047023053934" lon="-0.6880405367675556"><ele>247.0</ele><time>2026-03-31T15:57:43Z</time></trkpt><trkpt lat="43.15715353024832" lon="-0.6880509321047629"><ele>247.0</ele><time>2026-03-31T15:57:44Z</time></trkpt><trkpt lat="43.15726271554525" lon="-0.6880572055903457"><ele>247.0</ele><time>2026-03-31T15:57:45Z</time></trkpt><trkpt lat="43.15737271912886" lon="-0.6880628583600306"><ele>247.0</ele><time>2026-03-31T15:57:46Z</time></trkpt><trkpt lat="43.157484071641115" lon="-0.6880605779231849"><ele>247.0</ele><time>2026-03-31T15:57:47Z</time></trkpt><trkpt lat="43.15760069245271" lon="-0.6880445195394775"><ele>247.0</ele><time>2026-03-31T15:57:48Z</time></trkpt><trkpt lat="43.157694981917395" lon="-0.6879702276379964"><ele>247.0</ele><time>2026-03-31T15:57:49Z</time></trkpt><trkpt lat="43.1578108204096" lon="-0.6879207250821822"><ele>247.0</ele><time>2026-03-31T15:57:50Z</time></trkpt><trkpt lat="43.15792046662476" lon="-0.6878583286331184"><ele>247.0</ele><time>2026-03-31T15:57:51Z</time></trkpt><trkpt lat="43.158032949015706" lon="-0.6878009858724242"><ele>247.0</ele><time>2026-03-31T15:57:52Z</time></trkpt><trkpt lat="43.15813679532026" lon="-0.6877414547821419"><ele>247.0</ele><time>2026-03-31T15:57:53Z</time></trkpt><trkpt lat="43.15823376622163" lon="-0.6876822296890245"><ele>247.0</ele><time>2026-03-31T15:57:54Z</time></trkpt><trkpt lat="43.158329638514616" lon="-0.6876230808989301"><ele>247.0</ele><time>2026-03-31T15:57:55Z</time></trkpt><trkpt lat="43.15843540193467" lon="-0.6875616013931619"><ele>246.0</ele><time>2026-03-31T15:57:56Z</time></trkpt><trkpt lat="43.15854385181906" lon="-0.6874977878088231"><ele>245.0</ele><time>2026-03-31T15:57:57Z</time></trkpt><trkpt lat="43.158666514536485" lon="-0.6874232974716125"><ele>244.0</ele><time>2026-03-31T15:57:58Z</time></trkpt><trkpt lat="43.15879661363721" lon="-0.6873431892276008"><ele>243.0</ele><time>2026-03-31T15:57:59Z</time></trkpt><trkpt lat="43.15893559222806" lon="-0.6872699580146582"><ele>243.33333333333331</ele><time>2026-03-31T15:58:00Z</time></trkpt><trkpt lat="43.15908721487012" lon="-0.6872290637096238"><ele>243.66666666666666</ele><time>2026-03-31T15:58:01Z</time></trkpt><trkpt lat="43.15924124396528" lon="-0.6872137813104268"><ele>244.0</ele><time>2026-03-31T15:58:02Z</time></trkpt><trkpt lat="43.159386271779255" lon="-0.6871998690971773"><ele>244.0</ele><time>2026-03-31T15:58:03Z</time></trkpt><trkpt lat="43.15952599102505" lon="-0.6871900667128965"><ele>244.0</ele><time>2026-03-31T15:58:04Z</time></trkpt><trkpt lat="43.15966138276904" lon="-0.6871876325243859"><ele>244.0</ele><time>2026-03-31T15:58:05Z</time></trkpt><trkpt lat="43.159793154860864" lon="-0.6871784568421422"><ele>244.0</ele><time>2026-03-31T15:58:06Z</time></trkpt><trkpt lat="43.15992356105896" lon="-0.6871605133779884"><ele>244.25</ele><time>2026-03-31T15:58:07Z</time></trkpt><trkpt lat="43.160052980124604" lon="-0.6871394644920559"><ele>244.5</ele><time>2026-03-31T15:58:08Z</time></trkpt><trkpt lat="43.16017763602612" lon="-0.6871069808064286"><ele>244.75</ele><time>2026-03-31T15:58:09Z</time></trkpt><trkpt lat="43.16029169138439" lon="-0.687051175345916"><ele>245.0</ele><time>2026-03-31T15:58:10Z</time></trkpt><trkpt lat="43.16039284209412" lon="-0.6869685805060894"><ele>243.6</ele><time>2026-03-31T15:58:11Z</time></trkpt><trkpt lat="43.16048018656787" lon="-0.6868643353186831"><ele>242.2</ele><time>2026-03-31T15:58:12Z</time></trkpt><trkpt lat="43.160557782426004" lon="-0.6867410169261826"><ele>240.8</ele><time>2026-03-31T15:58:13Z</time></trkpt><trkpt lat="43.160608951901935" lon="-0.6866203170001393"><ele>239.4</ele><time>2026-03-31T15:58:14Z</time></trkpt><trkpt lat="43.16066990547606" lon="-0.6865393423485575"><ele>238.0</ele><time>2026-03-31T15:58:15Z</time></trkpt><trkpt lat="43.16075434822638" lon="-0.6865138115683574"><ele>238.0</ele><time>2026-03-31T15:58:16Z</time></trkpt><trkpt lat="43.16085419206235" lon="-0.6865444423071615"><ele>238.0</ele><time>2026-03-31T15:58:17Z</time></trkpt><trkpt lat="43.160963119759" lon="-0.6865894222433753"><ele>238.0</ele><time>2026-03-31T15:58:18Z</time></trkpt><trkpt lat="43.16110229305899" lon="-0.6865819077944078"><ele>238.0</ele><time>2026-03-31T15:58:19Z</time></trkpt><trkpt lat="43.16122525721788" lon="-0.6864973620074392"><ele>238.0</ele><time>2026-03-31T15:58:20Z</time></trkpt><trkpt lat="43.16134990250396" lon="-0.6864283673689399"><ele>238.0</ele><time>2026-03-31T15:58:21Z</time></trkpt><trkpt lat="43.16144441114499" lon="-0.6862977822109249"><ele>238.0</ele><time>2026-03-31T15:58:22Z</time></trkpt><trkpt lat="43.16156021258739" lon="-0.686193217557924"><ele>238.0</ele><time>2026-03-31T15:58:23Z</time></trkpt><trkpt lat="43.161667033283415" lon="-0.6860571328492605"><ele>237.33333333333331</ele><time>2026-03-31T15:58:24Z</time></trkpt><trkpt lat="43.16178460038419" lon="-0.6859174830461195"><ele>236.66666666666669</ele><time>2026-03-31T15:58:25Z</time></trkpt><trkpt lat="43.16190131177238" lon="-0.685762506168359"><ele>236.0</ele><time>2026-03-31T15:58:26Z</time></trkpt><trkpt lat="43.16200914633614" lon="-0.6855998889448532"><ele>236.0</ele><time>2026-03-31T15:58:27Z</time></trkpt><trkpt lat="43.16211272816882" lon="-0.685431080233764"><ele>236.0</ele><time>2026-03-31T15:58:28Z</time></trkpt><trkpt lat="43.162212292563204" lon="-0.6852499031289233"><ele>236.0</ele><time>2026-03-31T15:58:29Z</time></trkpt><trkpt lat="43.16230668695449" lon="-0.685059109989348"><ele>236.0</ele><time>2026-03-31T15:58:30Z</time></trkpt><trkpt lat="43.162401293352836" lon="-0.6848605463756345"><ele>236.0</ele><time>2026-03-31T15:58:31Z</time></trkpt><trkpt lat="43.162491341250025" lon="-0.6846552679213648"><ele>236.0</ele><time>2026-03-31T15:58:32Z</time></trkpt><trkpt lat="43.162563538904195" lon="-0.6844643322231962"><ele>236.25</ele><time>2026-03-31T15:58:33Z</time></trkpt><trkpt lat="43.162621728805306" lon="-0.6842826168602101"><ele>236.5</ele><time>2026-03-31T15:58:34Z</time></trkpt><trkpt lat="43.16266356987402" lon="-0.6841205042066868"><ele>236.75</ele><time>2026-03-31T15:58:35Z</time></trkpt><trkpt lat="43.162689004314295" lon="-0.6839792701842046"><ele>237.0</ele><time>2026-03-31T15:58:36Z</time></trkpt><trkpt lat="43.162697716853636" lon="-0.6838515352094077"><ele>237.0</ele><time>2026-03-31T15:58:37Z</time></trkpt><trkpt lat="43.16269791460704" lon="-0.6837344538819526"><ele>237.0</ele><time>2026-03-31T15:58:38Z</time></trkpt><trkpt lat="43.16275175284957" lon="-0.6835511392114936"><ele>237.0</ele><time>2026-03-31T15:59:36Z</time></trkpt><trkpt lat="43.16280264514423" lon="-0.6834076529842281"><ele>237.0</ele><time>2026-03-31T15:59:37Z</time></trkpt><trkpt lat="43.16285758219257" lon="-0.6832116921427711"><ele>237.0</ele><time>2026-03-31T15:59:38Z</time></trkpt><trkpt lat="43.162889458157785" lon="-0.6830035020509553"><ele>237.0</ele><time>2026-03-31T15:59:39Z</time></trkpt><trkpt lat="43.16293097957425" lon="-0.6827661753278456"><ele>237.0</ele><time>2026-03-31T15:59:40Z</time></trkpt><trkpt lat="43.16298137813572" lon="-0.6824939558244111"><ele>239.0</ele><time>2026-03-31T15:59:41Z</time></trkpt><trkpt lat="43.163036113416624" lon="-0.6821893845095126"><ele>241.0</ele><time>2026-03-31T15:59:42Z</time></trkpt><trkpt lat="43.16308888625748" lon="-0.6818692630783785"><ele>240.0</ele><time>2026-03-31T15:59:43Z</time></trkpt><trkpt lat="43.16314414216074" lon="-0.6815650588156893"><ele>239.0</ele><time>2026-03-31T15:59:44Z</time></trkpt><trkpt lat="43.163200538911624" lon="-0.6812517825603951"><ele>240.66666666666669</ele><time>2026-03-31T15:59:45Z</time></trkpt><trkpt lat="43.16325782124289" lon="-0.6809575219633137"><ele>242.33333333333331</ele><time>2026-03-31T15:59:46Z</time></trkpt><trkpt lat="43.16331243968534" lon="-0.6806647809568348"><ele>244.0</ele><time>2026-03-31T15:59:47Z</time></trkpt><trkpt lat="43.16336580440249" lon="-0.6803783864179572"><ele>247.0</ele><time>2026-03-31T15:59:48Z</time></trkpt><trkpt lat="43.1634299403093" lon="-0.6800971179436098"><ele>250.0</ele><time>2026-03-31T15:59:49Z</time></trkpt><trkpt lat="43.163516598684794" lon="-0.6798227627029039"><ele>253.0</ele><time>2026-03-31T15:59:50Z</time></trkpt><trkpt lat="43.16363006438738" lon="-0.6795652164863746"><ele>256.3333333333333</ele><time>2026-03-31T15:59:51Z</time></trkpt><trkpt lat="43.163762525180765" lon="-0.679327050234588"><ele>259.6666666666667</ele><time>2026-03-31T15:59:52Z</time></trkpt><trkpt lat="43.16389200492214" lon="-0.6790863547816199"><ele>263.0</ele><time>2026-03-31T15:59:53Z</time></trkpt><trkpt lat="43.16402177102925" lon="-0.6788377161608313"><ele>257.6666666666667</ele><time>2026-03-31T15:59:54Z</time></trkpt><trkpt lat="43.16415358403958" lon="-0.6785884466495306"><ele>252.33333333333331</ele><time>2026-03-31T15:59:55Z</time></trkpt><trkpt lat="43.16427189743647" lon="-0.6783263022309967"><ele>247.0</ele><time>2026-03-31T15:59:56Z</time></trkpt><trkpt lat="43.16437988043531" lon="-0.6780591698126811"><ele>247.0</ele><time>2026-03-31T15:59:57Z</time></trkpt><trkpt lat="43.16447507936402" lon="-0.6777861401850747"><ele>247.0</ele><time>2026-03-31T15:59:58Z</time></trkpt><trkpt lat="43.164565326938906" lon="-0.6775079611064747"><ele>247.0</ele><time>2026-03-31T15:59:59Z</time></trkpt><trkpt lat="43.16465601203835" lon="-0.6772242095543101"><ele>248.0</ele><time>2026-03-31T16:00:00Z</time></trkpt><trkpt lat="43.16474767137611" lon="-0.6769382720040028"><ele>249.0</ele><time>2026-03-31T16:00:01Z</time></trkpt><trkpt lat="43.16483834743398" lon="-0.676648130943943"><ele>247.0</ele><time>2026-03-31T16:00:02Z</time></trkpt><trkpt lat="43.16492749448867" lon="-0.6763529857552797"><ele>245.0</ele><time>2026-03-31T16:00:03Z</time></trkpt><trkpt lat="43.165017342961065" lon="-0.6760561420676238"><ele>245.0</ele><time>2026-03-31T16:00:04Z</time></trkpt><trkpt lat="43.16510793346858" lon="-0.6757547398736651"><ele>245.0</ele><time>2026-03-31T16:00:05Z</time></trkpt><trkpt lat="43.16519723396889" lon="-0.6754524854528721"><ele>245.0</ele><time>2026-03-31T16:00:06Z</time></trkpt><trkpt lat="43.16529258016868" lon="-0.675145539102944"><ele>245.0</ele><time>2026-03-31T16:00:07Z</time></trkpt><trkpt lat="43.1653885593271" lon="-0.6748391489363447"><ele>245.0</ele><time>2026-03-31T16:00:08Z</time></trkpt><trkpt lat="43.16548371257873" lon="-0.6745301118480478"><ele>245.0</ele><time>2026-03-31T16:00:09Z</time></trkpt><trkpt lat="43.16557318082541" lon="-0.6742353433287014"><ele>245.5</ele><time>2026-03-31T16:00:10Z</time></trkpt><trkpt lat="43.16566404646398" lon="-0.673933320981968"><ele>246.0</ele><time>2026-03-31T16:00:11Z</time></trkpt><trkpt lat="43.16575721275522" lon="-0.6736318336567989"><ele>243.5</ele><time>2026-03-31T16:00:12Z</time></trkpt><trkpt lat="43.165849774757696" lon="-0.6733313372475571"><ele>241.0</ele><time>2026-03-31T16:00:13Z</time></trkpt><trkpt lat="43.165941840057464" lon="-0.6730291278361689"><ele>242.0</ele><time>2026-03-31T16:00:14Z</time></trkpt><trkpt lat="43.16603514138891" lon="-0.6727326884705702"><ele>243.0</ele><time>2026-03-31T16:00:15Z</time></trkpt><trkpt lat="43.16612896126324" lon="-0.6724393741423025"><ele>243.0</ele><time>2026-03-31T16:00:16Z</time></trkpt><trkpt lat="43.16622247552956" lon="-0.6721495631453064"><ele>243.0</ele><time>2026-03-31T16:00:17Z</time></trkpt><trkpt lat="43.16631753508199" lon="-0.6718637282471018"><ele>247.5</ele><time>2026-03-31T16:00:18Z</time></trkpt><trkpt lat="43.16641325406988" lon="-0.6715806325682488"><ele>252.0</ele><time>2026-03-31T16:00:19Z</time></trkpt><trkpt lat="43.16650177517425" lon="-0.6712031391638795"><ele>245.0</ele><time>2026-03-31T16:00:20Z</time></trkpt><trkpt lat="43.1665908450787" lon="-0.6709060945924716"><ele>238.0</ele><time>2026-03-31T16:00:21Z</time></trkpt><trkpt lat="43.166680791222824" lon="-0.6706157060273692"><ele>238.0</ele><time>2026-03-31T16:00:22Z</time></trkpt><trkpt lat="43.16676957156018" lon="-0.6703267351258599"><ele>238.0</ele><time>2026-03-31T16:00:23Z</time></trkpt><trkpt lat="43.16686138405501" lon="-0.6700384977827759"><ele>237.5</ele><time>2026-03-31T16:00:24Z</time></trkpt><trkpt lat="43.1669558191817" lon="-0.669754493857465"><ele>237.0</ele><time>2026-03-31T16:00:25Z</time></trkpt><trkpt lat="43.167054119703096" lon="-0.6694646019468061"><ele>236.5</ele><time>2026-03-31T16:00:26Z</time></trkpt><trkpt lat="43.16714145959289" lon="-0.6691574454886131"><ele>236.0</ele><time>2026-03-31T16:00:27Z</time></trkpt><trkpt lat="43.16729503285855" lon="-0.6688747216057609"><ele>235.5</ele><time>2026-03-31T16:00:28Z</time></trkpt><trkpt lat="43.167430348808374" lon="-0.6685670252550872"><ele>235.0</ele><time>2026-03-31T16:00:29Z</time></trkpt><trkpt lat="43.16757295364888" lon="-0.6682718966607716"><ele>235.0</ele><time>2026-03-31T16:00:30Z</time></trkpt><trkpt lat="43.167711237454675" lon="-0.6679838428822169"><ele>235.0</ele><time>2026-03-31T16:00:31Z</time></trkpt><trkpt lat="43.16786248344756" lon="-0.6676881642085841"><ele>234.5</ele><time>2026-03-31T16:00:32Z</time></trkpt><trkpt lat="43.167979568132075" lon="-0.6673792300935244"><ele>234.0</ele><time>2026-03-31T16:00:33Z</time></trkpt><trkpt lat="43.16807763461706" lon="-0.6670523323395913"><ele>230.0</ele><time>2026-03-31T16:00:34Z</time></trkpt><trkpt lat="43.168157764598455" lon="-0.6667176835038482"><ele>226.0</ele><time>2026-03-31T16:00:35Z</time></trkpt><trkpt lat="43.1682166701787" lon="-0.666380884244286"><ele>226.0</ele><time>2026-03-31T16:00:36Z</time></trkpt><trkpt lat="43.16825529524293" lon="-0.6660381519527238"><ele>226.0</ele><time>2026-03-31T16:00:37Z</time></trkpt><trkpt lat="43.168274588364284" lon="-0.6656936983451945"><ele>226.0</ele><time>2026-03-31T16:00:38Z</time></trkpt><trkpt lat="43.16829361518751" lon="-0.6653543446900874"><ele>226.0</ele><time>2026-03-31T16:00:39Z</time></trkpt><trkpt lat="43.168329045496904" lon="-0.6649996795777487"><ele>226.0</ele><time>2026-03-31T16:00:40Z</time></trkpt><trkpt lat="43.168364997253" lon="-0.6646252171706755"><ele>226.0</ele><time>2026-03-31T16:00:41Z</time></trkpt><trkpt lat="43.16839355415855" lon="-0.6642577647940092"><ele>225.5</ele><time>2026-03-31T16:00:42Z</time></trkpt><trkpt lat="43.16842898836288" lon="-0.6639003638176533"><ele>225.0</ele><time>2026-03-31T16:00:43Z</time></trkpt><trkpt lat="43.16846387351753" lon="-0.6635476498194661"><ele>224.5</ele><time>2026-03-31T16:00:44Z</time></trkpt><trkpt lat="43.16849573231034" lon="-0.663190633468418"><ele>224.0</ele><time>2026-03-31T16:00:45Z</time></trkpt><trkpt lat="43.16852801967344" lon="-0.6628320758269258"><ele>224.5</ele><time>2026-03-31T16:00:46Z</time></trkpt><trkpt lat="43.16856326314306" lon="-0.6624736957876959"><ele>225.0</ele><time>2026-03-31T16:00:47Z</time></trkpt><trkpt lat="43.16859943886006" lon="-0.6621156880399561"><ele>224.5</ele><time>2026-03-31T16:00:48Z</time></trkpt><trkpt lat="43.16863585405676" lon="-0.6617558534935883"><ele>224.0</ele><time>2026-03-31T16:00:49Z</time></trkpt><trkpt lat="43.168671902719645" lon="-0.6614011413279083"><ele>224.0</ele><time>2026-03-31T16:00:50Z</time></trkpt><trkpt lat="43.168705469062004" lon="-0.6610423748882465"><ele>224.0</ele><time>2026-03-31T16:00:51Z</time></trkpt><trkpt lat="43.16874158223983" lon="-0.6606891432073795"><ele>224.0</ele><time>2026-03-31T16:00:52Z</time></trkpt><trkpt lat="43.168778674988005" lon="-0.660335706850758"><ele>224.0</ele><time>2026-03-31T16:00:53Z</time></trkpt><trkpt lat="43.16881456921487" lon="-0.6599869822621758"><ele>224.0</ele><time>2026-03-31T16:00:54Z</time></trkpt><trkpt lat="43.168846991162795" lon="-0.6596448910197386"><ele>224.0</ele><time>2026-03-31T16:00:55Z</time></trkpt><trkpt lat="43.16887756412456" lon="-0.6593078775742434"><ele>224.0</ele><time>2026-03-31T16:00:56Z</time></trkpt><trkpt lat="43.16890557158937" lon="-0.65898931893139"><ele>224.0</ele><time>2026-03-31T16:00:57Z</time></trkpt><trkpt lat="43.168935397876794" lon="-0.658682957082878"><ele>225.0</ele><time>2026-03-31T16:00:58Z</time></trkpt><trkpt lat="43.16896589041697" lon="-0.6583832498911855"><ele>226.0</ele><time>2026-03-31T16:00:59Z</time></trkpt><trkpt lat="43.16899295572325" lon="-0.6580826773035799"><ele>227.0</ele><time>2026-03-31T16:01:00Z</time></trkpt><trkpt lat="43.169007867732205" lon="-0.657764653603789"><ele>228.0</ele><time>2026-03-31T16:01:01Z</time></trkpt><trkpt lat="43.16900666452811" lon="-0.6574574845630069"><ele>229.0</ele><time>2026-03-31T16:01:02Z</time></trkpt><trkpt lat="43.16899307737417" lon="-0.6571526409669727"><ele>230.0</ele><time>2026-03-31T16:01:03Z</time></trkpt><trkpt lat="43.1689728295944" lon="-0.6568621710891698"><ele>230.66666666666669</ele><time>2026-03-31T16:01:04Z</time></trkpt><trkpt lat="43.168961523941874" lon="-0.656570367552391"><ele>231.33333333333331</ele><time>2026-03-31T16:01:05Z</time></trkpt><trkpt lat="43.16895434462673" lon="-0.6562704819870845"><ele>232.0</ele><time>2026-03-31T16:01:06Z</time></trkpt><trkpt lat="43.16894388407269" lon="-0.6559479651717851"><ele>233.0</ele><time>2026-03-31T16:01:07Z</time></trkpt><trkpt lat="43.16893449902679" lon="-0.6556191617090299"><ele>234.0</ele><time>2026-03-31T16:01:08Z</time></trkpt><trkpt lat="43.168925469242936" lon="-0.6552940511893061"><ele>235.5</ele><time>2026-03-31T16:01:09Z</time></trkpt><trkpt lat="43.16891586564013" lon="-0.6549809589006984"><ele>237.0</ele><time>2026-03-31T16:01:10Z</time></trkpt><trkpt lat="43.168909134835495" lon="-0.6546675370577013"><ele>237.5</ele><time>2026-03-31T16:01:11Z</time></trkpt><trkpt lat="43.168903778981665" lon="-0.6543576500483274"><ele>238.0</ele><time>2026-03-31T16:01:12Z</time></trkpt><trkpt lat="43.168894933543235" lon="-0.6540496493777676"><ele>238.0</ele><time>2026-03-31T16:01:13Z</time></trkpt><trkpt lat="43.16888368280642" lon="-0.6537405746588305"><ele>238.0</ele><time>2026-03-31T16:01:14Z</time></trkpt><trkpt lat="43.16887163239251" lon="-0.6534328975201017"><ele>237.66666666666666</ele><time>2026-03-31T16:01:15Z</time></trkpt><trkpt lat="43.168862031203474" lon="-0.6531292488142436"><ele>237.33333333333331</ele><time>2026-03-31T16:01:16Z</time></trkpt><trkpt lat="43.16885499941691" lon="-0.6528334723987195"><ele>237.0</ele><time>2026-03-31T16:01:17Z</time></trkpt><trkpt lat="43.168849323330804" lon="-0.6525525607721249"><ele>238.0</ele><time>2026-03-31T16:01:18Z</time></trkpt><trkpt lat="43.16884104267051" lon="-0.6522879896168576"><ele>239.0</ele><time>2026-03-31T16:01:19Z</time></trkpt><trkpt lat="43.16883240523005" lon="-0.6520403585441042"><ele>240.0</ele><time>2026-03-31T16:01:20Z</time></trkpt><trkpt lat="43.16882429157213" lon="-0.6517964428187513"><ele>240.33333333333331</ele><time>2026-03-31T16:01:21Z</time></trkpt><trkpt lat="43.168815624052215" lon="-0.6515285677729162"><ele>240.66666666666666</ele><time>2026-03-31T16:01:22Z</time></trkpt><trkpt lat="43.16881555165594" lon="-0.6512396975946476"><ele>241.0</ele><time>2026-03-31T16:01:23Z</time></trkpt><trkpt lat="43.16882065458219" lon="-0.6509416050521921"><ele>241.0</ele><time>2026-03-31T16:01:24Z</time></trkpt><trkpt lat="43.16882584609908" lon="-0.6506521319885535"><ele>241.0</ele><time>2026-03-31T16:01:25Z</time></trkpt><trkpt lat="43.16883276717924" lon="-0.6503635798262204"><ele>241.0</ele><time>2026-03-31T16:01:26Z</time></trkpt><trkpt lat="43.16884668649293" lon="-0.6500864301047073"><ele>241.0</ele><time>2026-03-31T16:01:27Z</time></trkpt><trkpt lat="43.168866909126706" lon="-0.6498354148138094"><ele>241.0</ele><time>2026-03-31T16:01:28Z</time></trkpt><trkpt lat="43.168913601516124" lon="-0.6496059737329064"><ele>241.0</ele><time>2026-03-31T16:01:29Z</time></trkpt><trkpt lat="43.16899684001035" lon="-0.6493756455092292"><ele>240.66666666666666</ele><time>2026-03-31T16:01:30Z</time></trkpt><trkpt lat="43.16911236449371" lon="-0.6491359062128121"><ele>240.33333333333331</ele><time>2026-03-31T16:01:31Z</time></trkpt><trkpt lat="43.169242046942735" lon="-0.6488786507577441"><ele>240.0</ele><time>2026-03-31T16:01:32Z</time></trkpt><trkpt lat="43.1693609688121" lon="-0.6486239060337744"><ele>240.0</ele><time>2026-03-31T16:01:33Z</time></trkpt><trkpt lat="43.169475515350335" lon="-0.6483637806714925"><ele>240.0</ele><time>2026-03-31T16:01:34Z</time></trkpt><trkpt lat="43.16958855121186" lon="-0.64810837334322"><ele>240.0</ele><time>2026-03-31T16:01:35Z</time></trkpt><trkpt lat="43.16969688115568" lon="-0.6478727298660477"><ele>240.33333333333331</ele><time>2026-03-31T16:01:36Z</time></trkpt><trkpt lat="43.16980687736839" lon="-0.6476519608019142"><ele>240.66666666666666</ele><time>2026-03-31T16:01:37Z</time></trkpt><trkpt lat="43.16993466719261" lon="-0.6474521918662778"><ele>241.0</ele><time>2026-03-31T16:01:38Z</time></trkpt><trkpt lat="43.170096604721834" lon="-0.6472901403664351"><ele>241.0</ele><time>2026-03-31T16:01:39Z</time></trkpt><trkpt lat="43.17029309316463" lon="-0.6471630027842599"><ele>241.0</ele><time>2026-03-31T16:01:40Z</time></trkpt><trkpt lat="43.17050628239397" lon="-0.6470668507986892"><ele>241.0</ele><time>2026-03-31T16:01:41Z</time></trkpt><trkpt lat="43.170732100185795" lon="-0.6469712758821585"><ele>240.5</ele><time>2026-03-31T16:01:42Z</time></trkpt><trkpt lat="43.17095552543898" lon="-0.6468673274777076"><ele>240.0</ele><time>2026-03-31T16:01:43Z</time></trkpt><trkpt lat="43.17118251551243" lon="-0.6467568554145573"><ele>240.0</ele><time>2026-03-31T16:01:44Z</time></trkpt><trkpt lat="43.17138670764256" lon="-0.6466576144970644"><ele>240.0</ele><time>2026-03-31T16:01:45Z</time></trkpt><trkpt lat="43.1715729800992" lon="-0.6465653554366383"><ele>240.0</ele><time>2026-03-31T16:01:46Z</time></trkpt><trkpt lat="43.17178091842693" lon="-0.6464608883173403"><ele>236.0</ele><time>2026-03-31T16:01:47Z</time></trkpt><trkpt lat="43.17199581492742" lon="-0.6463547965841903"><ele>232.0</ele><time>2026-03-31T16:01:48Z</time></trkpt><trkpt lat="43.17222260076128" lon="-0.6462464744940016"><ele>234.0</ele><time>2026-03-31T16:01:49Z</time></trkpt><trkpt lat="43.1724516205941" lon="-0.6461371051718863"><ele>236.0</ele><time>2026-03-31T16:01:50Z</time></trkpt><trkpt lat="43.17267659324571" lon="-0.6460281068688403"><ele>236.0</ele><time>2026-03-31T16:01:51Z</time></trkpt><trkpt lat="43.172902895771905" lon="-0.6459199088589412"><ele>236.0</ele><time>2026-03-31T16:01:52Z</time></trkpt><trkpt lat="43.17312804509175" lon="-0.6458149961805094"><ele>234.5</ele><time>2026-03-31T16:01:53Z</time></trkpt><trkpt lat="43.173347605770836" lon="-0.6457053439316867"><ele>233.0</ele><time>2026-03-31T16:01:54Z</time></trkpt><trkpt lat="43.17356088661827" lon="-0.6455946484613156"><ele>233.0</ele><time>2026-03-31T16:01:55Z</time></trkpt><trkpt lat="43.173766209463565" lon="-0.6454948498092782"><ele>233.0</ele><time>2026-03-31T16:01:56Z</time></trkpt><trkpt lat="43.1739379612731" lon="-0.6454127605827398"><ele>233.0</ele><time>2026-03-31T16:01:57Z</time></trkpt><trkpt lat="43.174083721005005" lon="-0.6453376165623164"><ele>233.33333333333334</ele><time>2026-03-31T16:01:58Z</time></trkpt><trkpt lat="43.17421932909384" lon="-0.6452689645555763"><ele>233.66666666666669</ele><time>2026-03-31T16:01:59Z</time></trkpt><trkpt lat="43.17435405101454" lon="-0.6451983591281688"><ele>234.0</ele><time>2026-03-31T16:02:00Z</time></trkpt><trkpt lat="43.17451629894592" lon="-0.6451068636574594"><ele>234.0</ele><time>2026-03-31T16:02:01Z</time></trkpt><trkpt lat="43.17468327931901" lon="-0.644993126044706"><ele>234.0</ele><time>2026-03-31T16:02:02Z</time></trkpt><trkpt lat="43.174844342796796" lon="-0.6448674834673976"><ele>234.0</ele><time>2026-03-31T16:02:03Z</time></trkpt><trkpt lat="43.1749998848317" lon="-0.6447356795932191"><ele>232.33333333333331</ele><time>2026-03-31T16:02:04Z</time></trkpt><trkpt lat="43.17515571059132" lon="-0.6445961684535996"><ele>230.66666666666666</ele><time>2026-03-31T16:02:05Z</time></trkpt><trkpt lat="43.17530378548682" lon="-0.644445822949692"><ele>229.0</ele><time>2026-03-31T16:02:06Z</time></trkpt><trkpt lat="43.17545142784014" lon="-0.6442924632245338"><ele>229.0</ele><time>2026-03-31T16:02:07Z</time></trkpt><trkpt lat="43.17559620355941" lon="-0.6441462179478709"><ele>229.0</ele><time>2026-03-31T16:02:08Z</time></trkpt><trkpt lat="43.1757419330471" lon="-0.6440097716621537"><ele>229.0</ele><time>2026-03-31T16:02:09Z</time></trkpt><trkpt lat="43.175882180524845" lon="-0.6438785310906102"><ele>228.66666666666666</ele><time>2026-03-31T16:02:10Z</time></trkpt><trkpt lat="43.176017607735155" lon="-0.6437446047392396"><ele>228.33333333333331</ele><time>2026-03-31T16:02:11Z</time></trkpt><trkpt lat="43.176142795478526" lon="-0.6436142750773042"><ele>228.0</ele><time>2026-03-31T16:02:12Z</time></trkpt><trkpt lat="43.17626946052235" lon="-0.6434848718605692"><ele>228.0</ele><time>2026-03-31T16:02:13Z</time></trkpt><trkpt lat="43.17638911360574" lon="-0.643357025213881"><ele>228.0</ele><time>2026-03-31T16:02:14Z</time></trkpt><trkpt lat="43.17651074886758" lon="-0.6432148930200041"><ele>228.0</ele><time>2026-03-31T16:02:15Z</time></trkpt><trkpt lat="43.17662412438293" lon="-0.6430685840346736"><ele>228.0</ele><time>2026-03-31T16:02:16Z</time></trkpt><trkpt lat="43.17673080456344" lon="-0.6429329380152742"><ele>228.0</ele><time>2026-03-31T16:02:17Z</time></trkpt><trkpt lat="43.17683679980892" lon="-0.6428088426530413"><ele>228.0</ele><time>2026-03-31T16:02:18Z</time></trkpt><trkpt lat="43.17695343998208" lon="-0.6426938643438121"><ele>228.0</ele><time>2026-03-31T16:02:19Z</time></trkpt><trkpt lat="43.17707988316882" lon="-0.6425922389289831"><ele>228.0</ele><time>2026-03-31T16:02:20Z</time></trkpt><trkpt lat="43.17721269719982" lon="-0.6425074340852722"><ele>228.0</ele><time>2026-03-31T16:02:21Z</time></trkpt><trkpt lat="43.17734226208073" lon="-0.6424139335195341"><ele>228.0</ele><time>2026-03-31T16:02:22Z</time></trkpt><trkpt lat="43.17745775263716" lon="-0.6422871171580088"><ele>228.0</ele><time>2026-03-31T16:02:23Z</time></trkpt><trkpt lat="43.177541801876544" lon="-0.6421195139659912"><ele>229.0</ele><time>2026-03-31T16:02:24Z</time></trkpt><trkpt lat="43.17763860249006" lon="-0.6419583095812074"><ele>230.0</ele><time>2026-03-31T16:02:25Z</time></trkpt><trkpt lat="43.1777108215259" lon="-0.6417754196088059"><ele>231.0</ele><time>2026-03-31T16:02:26Z</time></trkpt><trkpt lat="43.177794958319" lon="-0.6416016584380473"><ele>231.0</ele><time>2026-03-31T16:02:27Z</time></trkpt><trkpt lat="43.17789900378598" lon="-0.6414408010679234"><ele>231.0</ele><time>2026-03-31T16:02:28Z</time></trkpt><trkpt lat="43.178014015471035" lon="-0.6413045469872927"><ele>231.0</ele><time>2026-03-31T16:02:29Z</time></trkpt><trkpt lat="43.17813899635846" lon="-0.6411856281704429"><ele>232.0</ele><time>2026-03-31T16:02:30Z</time></trkpt><trkpt lat="43.1782726531174" lon="-0.6410779492762381"><ele>233.0</ele><time>2026-03-31T16:02:31Z</time></trkpt><trkpt lat="43.178408601345396" lon="-0.640972769494402"><ele>234.0</ele><time>2026-03-31T16:02:32Z</time></trkpt><trkpt lat="43.17854453670742" lon="-0.6408672409748284"><ele>234.0</ele><time>2026-03-31T16:02:33Z</time></trkpt><trkpt lat="43.178683291566664" lon="-0.6407732551057364"><ele>234.0</ele><time>2026-03-31T16:02:34Z</time></trkpt><trkpt lat="43.178828958771746" lon="-0.6406930823311766"><ele>234.0</ele><time>2026-03-31T16:02:35Z</time></trkpt><trkpt lat="43.178976759469876" lon="-0.6406100489581085"><ele>233.5</ele><time>2026-03-31T16:02:36Z</time></trkpt><trkpt lat="43.179113537925794" lon="-0.6405265618311432"><ele>233.0</ele><time>2026-03-31T16:02:37Z</time></trkpt><trkpt lat="43.179243887676705" lon="-0.6404450154790754"><ele>232.5</ele><time>2026-03-31T16:02:38Z</time></trkpt><trkpt lat="43.17935924954811" lon="-0.6403695187697273"><ele>232.0</ele><time>2026-03-31T16:02:39Z</time></trkpt><trkpt lat="43.17944368913372" lon="-0.640308550902337"><ele>232.39999999999998</ele><time>2026-03-31T16:02:40Z</time></trkpt><trkpt lat="43.17951731511557" lon="-0.6402559116855365"><ele>232.79999999999998</ele><time>2026-03-31T16:02:41Z</time></trkpt><trkpt lat="43.1796081827611" lon="-0.64020501237992"><ele>233.2</ele><time>2026-03-31T16:02:42Z</time></trkpt><trkpt lat="43.179716596226385" lon="-0.640143042252838"><ele>233.6</ele><time>2026-03-31T16:02:43Z</time></trkpt><trkpt lat="43.17983010946304" lon="-0.6400719785440068"><ele>234.0</ele><time>2026-03-31T16:02:44Z</time></trkpt><trkpt lat="43.179926588782706" lon="-0.6400112244720685"><ele>234.0</ele><time>2026-03-31T16:02:45Z</time></trkpt><trkpt lat="43.1799875426079" lon="-0.6399775272795958"><ele>234.0</ele><time>2026-03-31T16:02:46Z</time></trkpt><trkpt lat="43.17996982303417" lon="-0.6398875762170209"><ele>234.0</ele><time>2026-03-31T16:02:49Z</time></trkpt><trkpt lat="43.179940032916186" lon="-0.6397790577963112"><ele>234.0</ele><time>2026-03-31T16:02:50Z</time></trkpt><trkpt lat="43.17989188257631" lon="-0.6396558503793268"><ele>234.0</ele><time>2026-03-31T16:02:51Z</time></trkpt><trkpt lat="43.17984392509257" lon="-0.6395280897997498"><ele>234.0</ele><time>2026-03-31T16:02:52Z</time></trkpt><trkpt lat="43.17979143828269" lon="-0.6393748907832554"><ele>236.75</ele><time>2026-03-31T16:02:53Z</time></trkpt><trkpt lat="43.179733566805794" lon="-0.6392134087876392"><ele>239.5</ele><time>2026-03-31T16:02:54Z</time></trkpt><trkpt lat="43.17966838609243" lon="-0.6390382908387748"><ele>242.25</ele><time>2026-03-31T16:02:55Z</time></trkpt><trkpt lat="43.179600195942555" lon="-0.63885998519934"><ele>245.0</ele><time>2026-03-31T16:02:56Z</time></trkpt><trkpt lat="43.17952546182322" lon="-0.6386672639031582"><ele>246.66666666666669</ele><time>2026-03-31T16:02:57Z</time></trkpt><trkpt lat="43.17943656938832" lon="-0.6384765983885765"><ele>248.33333333333331</ele><time>2026-03-31T16:02:58Z</time></trkpt><trkpt lat="43.17933585660987" lon="-0.6382849722434631"><ele>250.0</ele><time>2026-03-31T16:02:59Z</time></trkpt><trkpt lat="43.17923891103726" lon="-0.6380959701222435"><ele>250.0</ele><time>2026-03-31T16:03:00Z</time></trkpt><trkpt lat="43.179135407925635" lon="-0.6378882975808857"><ele>250.0</ele><time>2026-03-31T16:03:01Z</time></trkpt><trkpt lat="43.17903744093298" lon="-0.6376730226197217"><ele>250.0</ele><time>2026-03-31T16:03:02Z</time></trkpt><trkpt lat="43.17894210902879" lon="-0.6374540831484228"><ele>251.66666666666666</ele><time>2026-03-31T16:03:03Z</time></trkpt><trkpt lat="43.178854830150165" lon="-0.6372317670502542"><ele>253.33333333333331</ele><time>2026-03-31T16:03:04Z</time></trkpt><trkpt lat="43.17877558702926" lon="-0.6370118067934476"><ele>255.0</ele><time>2026-03-31T16:03:05Z</time></trkpt><trkpt lat="43.17870436473016" lon="-0.6367838567947555"><ele>255.66666666666669</ele><time>2026-03-31T16:03:06Z</time></trkpt><trkpt lat="43.17864223458063" lon="-0.6365512693534787"><ele>256.33333333333337</ele><time>2026-03-31T16:03:07Z</time></trkpt><trkpt lat="43.1785962917744" lon="-0.6362997119565776"><ele>257.0</ele><time>2026-03-31T16:03:08Z</time></trkpt><trkpt lat="43.17856679294362" lon="-0.6360553918295375"><ele>257.0</ele><time>2026-03-31T16:03:09Z</time></trkpt><trkpt lat="43.1785451424216" lon="-0.6358115353585906"><ele>257.0</ele><time>2026-03-31T16:03:10Z</time></trkpt><trkpt lat="43.17852050590628" lon="-0.6355705632009749"><ele>257.0</ele><time>2026-03-31T16:03:11Z</time></trkpt><trkpt lat="43.17849027609355" lon="-0.635331581061735"><ele>255.66666666666669</ele><time>2026-03-31T16:03:12Z</time></trkpt><trkpt lat="43.17845482862512" lon="-0.6350990585528756"><ele>254.33333333333331</ele><time>2026-03-31T16:03:13Z</time></trkpt><trkpt lat="43.17843063570886" lon="-0.6348675129555957"><ele>253.0</ele><time>2026-03-31T16:03:14Z</time></trkpt><trkpt lat="43.17840770822724" lon="-0.634672988019075"><ele>253.0</ele><time>2026-03-31T16:03:15Z</time></trkpt><trkpt lat="43.17838736743718" lon="-0.6344982464594346"><ele>253.0</ele><time>2026-03-31T16:03:16Z</time></trkpt><trkpt lat="43.17836505672052" lon="-0.6343370596733096"><ele>253.0</ele><time>2026-03-31T16:03:17Z</time></trkpt><trkpt lat="43.17834850698219" lon="-0.6341946687962091"><ele>253.0</ele><time>2026-03-31T16:03:18Z</time></trkpt><trkpt lat="43.178315053771314" lon="-0.6340694394012097"><ele>252.2</ele><time>2026-03-31T16:03:19Z</time></trkpt><trkpt lat="43.178283944645536" lon="-0.6339484633447896"><ele>251.4</ele><time>2026-03-31T16:03:20Z</time></trkpt><trkpt lat="43.17825646077849" lon="-0.6338415077394435"><ele>250.59999999999997</ele><time>2026-03-31T16:03:21Z</time></trkpt><trkpt lat="43.178235867247295" lon="-0.6337047196144703"><ele>249.79999999999998</ele><time>2026-03-31T16:03:23Z</time></trkpt><trkpt lat="43.1782035849492" lon="-0.6336109007895933"><ele>249.0</ele><time>2026-03-31T16:03:25Z</time></trkpt><trkpt lat="43.178176844857695" lon="-0.633483727961186"><ele>252.33333333333334</ele><time>2026-03-31T16:03:27Z</time></trkpt><trkpt lat="43.1781389444875" lon="-0.6333671146837025"><ele>255.66666666666669</ele><time>2026-03-31T16:03:29Z</time></trkpt><trkpt lat="43.1781213106531" lon="-0.6332665898545201"><ele>259.0</ele><time>2026-03-31T16:03:31Z</time></trkpt><trkpt lat="43.17811586491516" lon="-0.6331640286575813"><ele>262.33333333333337</ele><time>2026-03-31T16:03:33Z</time></trkpt><trkpt lat="43.178094105734196" lon="-0.633060452823627"><ele>265.6666666666667</ele><time>2026-03-31T16:03:35Z</time></trkpt><trkpt lat="43.178087119233005" lon="-0.6329664204914678"><ele>269.0</ele><time>2026-03-31T16:03:37Z</time></trkpt><trkpt lat="43.17808060832828" lon="-0.6328787891337451"><ele>268.33333333333337</ele><time>2026-03-31T16:03:39Z</time></trkpt><trkpt lat="43.178073453276085" lon="-0.6327824879769156"><ele>267.6666666666667</ele><time>2026-03-31T16:03:41Z</time></trkpt><trkpt lat="43.178065799150005" lon="-0.6326794697054768"><ele>267.0</ele><time>2026-03-31T16:03:43Z</time></trkpt><trkpt lat="43.17805656311515" lon="-0.632571401431468"><ele>266.3333333333333</ele><time>2026-03-31T16:03:45Z</time></trkpt><trkpt lat="43.178039391967836" lon="-0.6324129790449853"><ele>265.66666666666663</ele><time>2026-03-31T16:03:47Z</time></trkpt><trkpt lat="43.178016080635615" lon="-0.6323192889465827"><ele>265.0</ele><time>2026-03-31T16:03:48Z</time></trkpt><trkpt lat="43.17798003443359" lon="-0.6321952061725645"><ele>265.0</ele><time>2026-03-31T16:03:49Z</time></trkpt><trkpt lat="43.17793478608664" lon="-0.6320312067883661"><ele>265.0</ele><time>2026-03-31T16:03:50Z</time></trkpt><trkpt lat="43.17788085398968" lon="-0.6318294599614072"><ele>265.0</ele><time>2026-03-31T16:03:51Z</time></trkpt><trkpt lat="43.17784359804792" lon="-0.6316238761064822"><ele>265.0</ele><time>2026-03-31T16:03:52Z</time></trkpt><trkpt lat="43.17778171014489" lon="-0.6314172505410726"><ele>263.75</ele><time>2026-03-31T16:03:53Z</time></trkpt><trkpt lat="43.1777247298374" lon="-0.6312294146321538"><ele>262.5</ele><time>2026-03-31T16:03:54Z</time></trkpt><trkpt lat="43.17766807523806" lon="-0.6310551910238139"><ele>261.25</ele><time>2026-03-31T16:03:55Z</time></trkpt><trkpt lat="43.177593525314904" lon="-0.6308631392457118"><ele>260.0</ele><time>2026-03-31T16:03:56Z</time></trkpt><trkpt lat="43.17751337489626" lon="-0.6306622480386233"><ele>260.0</ele><time>2026-03-31T16:03:57Z</time></trkpt><trkpt lat="43.17743160062667" lon="-0.6304670793270883"><ele>260.0</ele><time>2026-03-31T16:03:58Z</time></trkpt><trkpt lat="43.177334477319356" lon="-0.6302911993368854"><ele>260.0</ele><time>2026-03-31T16:03:59Z</time></trkpt><trkpt lat="43.17726266053963" lon="-0.6300938310886818"><ele>260.0</ele><time>2026-03-31T16:04:00Z</time></trkpt><trkpt lat="43.17717375449356" lon="-0.6299061975108776"><ele>260.0</ele><time>2026-03-31T16:04:01Z</time></trkpt><trkpt lat="43.177069728101756" lon="-0.6297451349082925"><ele>260.0</ele><time>2026-03-31T16:04:02Z</time></trkpt><trkpt lat="43.17696859475438" lon="-0.6296006454617525"><ele>257.0</ele><time>2026-03-31T16:04:03Z</time></trkpt><trkpt lat="43.17686123180258" lon="-0.6294577934771265"><ele>254.0</ele><time>2026-03-31T16:04:04Z</time></trkpt><trkpt lat="43.17676823640713" lon="-0.6293002066780126"><ele>251.0</ele><time>2026-03-31T16:04:05Z</time></trkpt><trkpt lat="43.176676350922754" lon="-0.629172197675635"><ele>248.0</ele><time>2026-03-31T16:04:06Z</time></trkpt><trkpt lat="43.17659488033474" lon="-0.6290502230053124"><ele>248.0</ele><time>2026-03-31T16:04:07Z</time></trkpt><trkpt lat="43.1765254067047" lon="-0.62893963501877"><ele>248.0</ele><time>2026-03-31T16:04:08Z</time></trkpt><trkpt lat="43.17646152901929" lon="-0.6288304306099323"><ele>248.0</ele><time>2026-03-31T16:04:09Z</time></trkpt><trkpt lat="43.17639818018334" lon="-0.6287169712488473"><ele>248.0</ele><time>2026-03-31T16:04:10Z</time></trkpt><trkpt lat="43.17634711370293" lon="-0.6286080028035864"><ele>248.0</ele><time>2026-03-31T16:04:11Z</time></trkpt><trkpt lat="43.17630910084574" lon="-0.6284942684161092"><ele>250.83333333333334</ele><time>2026-03-31T16:04:12Z</time></trkpt><trkpt lat="43.1762788476076" lon="-0.6283804323701943"><ele>253.66666666666669</ele><time>2026-03-31T16:04:13Z</time></trkpt><trkpt lat="43.17625131783279" lon="-0.6282742800281581"><ele>256.5</ele><time>2026-03-31T16:04:14Z</time></trkpt><trkpt lat="43.176226630062885" lon="-0.6281677541460021"><ele>259.3333333333333</ele><time>2026-03-31T16:04:15Z</time></trkpt><trkpt lat="43.176200206712835" lon="-0.6280613744292369"><ele>262.16666666666663</ele><time>2026-03-31T16:04:16Z</time></trkpt><trkpt lat="43.17616791538658" lon="-0.6279495906245071"><ele>265.0</ele><time>2026-03-31T16:04:17Z</time></trkpt><trkpt lat="43.176135987167626" lon="-0.6278392270581502"><ele>263.4</ele><time>2026-03-31T16:04:18Z</time></trkpt><trkpt lat="43.176109914499825" lon="-0.6277213844616968"><ele>261.8</ele><time>2026-03-31T16:04:19Z</time></trkpt><trkpt lat="43.176095008340404" lon="-0.627595027980613"><ele>260.2</ele><time>2026-03-31T16:04:20Z</time></trkpt><trkpt lat="43.176098521812364" lon="-0.6274598229735567"><ele>258.6</ele><time>2026-03-31T16:04:21Z</time></trkpt><trkpt lat="43.176125722085274" lon="-0.6273279792078602"><ele>257.0</ele><time>2026-03-31T16:04:22Z</time></trkpt><trkpt lat="43.17617037168431" lon="-0.6272155198536548"><ele>257.0</ele><time>2026-03-31T16:04:23Z</time></trkpt><trkpt lat="43.17622686460595" lon="-0.6271197340360355"><ele>257.0</ele><time>2026-03-31T16:04:24Z</time></trkpt><trkpt lat="43.17626094035153" lon="-0.6270311292865715"><ele>257.0</ele><time>2026-03-31T16:04:25Z</time></trkpt><trkpt lat="43.17630164519153" lon="-0.626938822945545"><ele>257.0</ele><time>2026-03-31T16:04:26Z</time></trkpt><trkpt lat="43.17640359239715" lon="-0.6268675035500589"><ele>257.0</ele><time>2026-03-31T16:04:27Z</time></trkpt><trkpt lat="43.17649128201681" lon="-0.6267939389519246"><ele>254.0</ele><time>2026-03-31T16:04:28Z</time></trkpt><trkpt lat="43.17658206006561" lon="-0.6267054558596815"><ele>251.0</ele><time>2026-03-31T16:04:29Z</time></trkpt><trkpt lat="43.17666800199214" lon="-0.626602752533373"><ele>248.0</ele><time>2026-03-31T16:04:30Z</time></trkpt><trkpt lat="43.1767667422301" lon="-0.62651255413885"><ele>245.0</ele><time>2026-03-31T16:04:31Z</time></trkpt><trkpt lat="43.17684048969724" lon="-0.6264012863192543"><ele>245.0</ele><time>2026-03-31T16:04:32Z</time></trkpt><trkpt lat="43.17691471113812" lon="-0.6263061319470647"><ele>245.0</ele><time>2026-03-31T16:04:33Z</time></trkpt><trkpt lat="43.17698791148701" lon="-0.6262151872381579"><ele>245.0</ele><time>2026-03-31T16:04:34Z</time></trkpt><trkpt lat="43.177059316649654" lon="-0.6261324269786269"><ele>245.0</ele><time>2026-03-31T16:04:35Z</time></trkpt><trkpt lat="43.17712666433793" lon="-0.626053779620248"><ele>245.0</ele><time>2026-03-31T16:04:36Z</time></trkpt><trkpt lat="43.177194659624114" lon="-0.6259724479097916"><ele>245.00000000000003</ele><time>2026-03-31T16:04:37Z</time></trkpt><trkpt lat="43.177258900368216" lon="-0.6258960545885697"><ele>245.0</ele><time>2026-03-31T16:04:38Z</time></trkpt><trkpt lat="43.17731909126005" lon="-0.625817658547791"><ele>245.0</ele><time>2026-03-31T16:04:39Z</time></trkpt><trkpt lat="43.17738305235517" lon="-0.6257417682868636"><ele>245.0</ele><time>2026-03-31T16:04:40Z</time></trkpt><trkpt lat="43.1774414928882" lon="-0.6256646330504303"><ele>245.00000000000003</ele><time>2026-03-31T16:04:41Z</time></trkpt><trkpt lat="43.17750029230437" lon="-0.6255892359563925"><ele>245.0</ele><time>2026-03-31T16:04:42Z</time></trkpt><trkpt lat="43.17755610842057" lon="-0.6255040618678035"><ele>244.66666666666669</ele><time>2026-03-31T16:04:43Z</time></trkpt><trkpt lat="43.1775930814208" lon="-0.6254049782313357"><ele>244.33333333333334</ele><time>2026-03-31T16:04:44Z</time></trkpt><trkpt lat="43.177599821734" lon="-0.6253129069685563"><ele>244.0</ele><time>2026-03-31T16:04:45Z</time></trkpt><trkpt lat="43.17759984843926" lon="-0.6252118794288402"><ele>243.66666666666669</ele><time>2026-03-31T16:04:46Z</time></trkpt><trkpt lat="43.177618005553434" lon="-0.6250960906921632"><ele>243.33333333333334</ele><time>2026-03-31T16:04:47Z</time></trkpt><trkpt lat="43.177667731772694" lon="-0.6249580216481437"><ele>243.0</ele><time>2026-03-31T16:04:48Z</time></trkpt><trkpt lat="43.17774825304974" lon="-0.6248126448787059"><ele>243.0</ele><time>2026-03-31T16:04:49Z</time></trkpt><trkpt lat="43.17783276038873" lon="-0.6246743390524339"><ele>243.0</ele><time>2026-03-31T16:04:50Z</time></trkpt><trkpt lat="43.177903200256054" lon="-0.6245576188186965"><ele>243.0</ele><time>2026-03-31T16:04:51Z</time></trkpt><trkpt lat="43.17796327932148" lon="-0.6244540408278983"><ele>243.0</ele><time>2026-03-31T16:04:52Z</time></trkpt><trkpt lat="43.178018547154934" lon="-0.6243583272103614"><ele>243.0</ele><time>2026-03-31T16:04:53Z</time></trkpt><trkpt lat="43.178071681089946" lon="-0.6242784859091772"><ele>243.0</ele><time>2026-03-31T16:04:54Z</time></trkpt><trkpt lat="43.17811359127756" lon="-0.6241884673672324"><ele>243.0</ele><time>2026-03-31T16:04:55Z</time></trkpt><trkpt lat="43.178171916669896" lon="-0.6240934819586059"><ele>243.0</ele><time>2026-03-31T16:04:56Z</time></trkpt><trkpt lat="43.17823792246929" lon="-0.6239715133844864"><ele>243.0</ele><time>2026-03-31T16:04:57Z</time></trkpt><trkpt lat="43.178296566764494" lon="-0.6238610504388855"><ele>243.0</ele><time>2026-03-31T16:04:58Z</time></trkpt><trkpt lat="43.178345926226065" lon="-0.6237650438265403"><ele>242.66666666666669</ele><time>2026-03-31T16:04:59Z</time></trkpt><trkpt lat="43.17838766897977" lon="-0.6236822676525037"><ele>242.33333333333334</ele><time>2026-03-31T16:05:00Z</time></trkpt><trkpt lat="43.178428012440385" lon="-0.6235811721543264"><ele>242.0</ele><time>2026-03-31T16:05:02Z</time></trkpt><trkpt lat="43.17853173360546" lon="-0.6239820068405808"><ele>242.0</ele><time>2026-03-31T16:05:19Z</time></trkpt><trkpt lat="43.17859583878042" lon="-0.6239581582209999"><ele>241.99999999999997</ele><time>2026-03-31T16:05:49Z</time></trkpt><trkpt lat="43.17863700365162" lon="-0.6238803511580898"><ele>242.0</ele><time>2026-03-31T16:05:54Z</time></trkpt><trkpt lat="43.17873064291027" lon="-0.6238786861767666"><ele>242.0</ele><time>2026-03-31T16:06:02Z</time></trkpt><trkpt lat="43.17866846186032" lon="-0.6238165019244526"><ele>241.99999999999997</ele><time>2026-03-31T16:14:43Z</time></trkpt><trkpt lat="43.178648084968515" lon="-0.6238995840983134"><ele>242.0</ele><time>2026-03-31T16:14:51Z</time></trkpt><trkpt lat="43.17858206490191" lon="-0.6239508537295372"><ele>242.0</ele><time>2026-03-31T16:14:55Z</time></trkpt><trkpt lat="43.17857165647178" lon="-0.6240777514423971"><ele>242.0</ele><time>2026-03-31T16:15:16Z</time></trkpt><trkpt lat="43.178502474877156" lon="-0.6240567470736889"><ele>241.99999999999997</ele><time>2026-03-31T16:15:19Z</time></trkpt><trkpt lat="43.178516839980325" lon="-0.6239578200926644"><ele>242.0</ele><time>2026-03-31T16:15:21Z</time></trkpt><trkpt lat="43.17854870231676" lon="-0.623861479055368"><ele>242.0</ele><time>2026-03-31T16:15:23Z</time></trkpt><trkpt lat="43.17857828270761" lon="-0.6237411786703394"><ele>241.99999999999997</ele><time>2026-03-31T16:15:25Z</time></trkpt><trkpt lat="43.17864052344608" lon="-0.6237745457255583"><ele>242.0</ele><time>2026-03-31T16:15:29Z</time></trkpt><trkpt lat="43.17870431893651" lon="-0.623787386293945"><ele>242.0</ele><time>2026-03-31T16:15:35Z</time></trkpt><trkpt lat="43.17878371568675" lon="-0.6237712520796705"><ele>242.00000000000003</ele><time>2026-03-31T16:15:37Z</time></trkpt><trkpt lat="43.17884984566737" lon="-0.6238024387089021"><ele>242.0</ele><time>2026-03-31T16:15:39Z</time></trkpt><trkpt lat="43.178885965260015" lon="-0.6238833876695249"><ele>242.0</ele><time>2026-03-31T16:15:41Z</time></trkpt><trkpt lat="43.1789023471592" lon="-0.6240037301749054"><ele>242.0</ele><time>2026-03-31T16:15:43Z</time></trkpt><trkpt lat="43.178975660008426" lon="-0.6240932986601223"><ele>242.00000000000003</ele><time>2026-03-31T16:15:45Z</time></trkpt><trkpt lat="43.17904136437525" lon="-0.6242061080497072"><ele>242.0</ele><time>2026-03-31T16:15:47Z</time></trkpt><trkpt lat="43.17908078391015" lon="-0.624335136503483"><ele>241.66666666666669</ele><time>2026-03-31T16:15:49Z</time></trkpt><trkpt lat="43.17912116042358" lon="-0.6244485135555148"><ele>241.33333333333334</ele><time>2026-03-31T16:15:51Z</time></trkpt><trkpt lat="43.17918251608976" lon="-0.6245195866511738"><ele>241.0</ele><time>2026-03-31T16:15:55Z</time></trkpt><trkpt lat="43.17925299559703" lon="-0.6245848038262366"><ele>240.66666666666669</ele><time>2026-03-31T16:15:58Z</time></trkpt><trkpt lat="43.179309960082946" lon="-0.6246303114178439"><ele>240.33333333333334</ele><time>2026-03-31T16:16:02Z</time></trkpt><trkpt lat="43.179244345584735" lon="-0.62469943790972"><ele>240.0</ele><time>2026-03-31T16:17:15Z</time></trkpt><trkpt lat="43.17929796151552" lon="-0.6246528389804217"><ele>240.0</ele><time>2026-03-31T16:28:59Z</time></trkpt><trkpt lat="43.17923441269119" lon="-0.6246929023027968"><ele>240.0</ele><time>2026-03-31T16:30:40Z</time></trkpt><trkpt lat="43.179280602497464" lon="-0.6246302432285604"><ele>240.0</ele><time>2026-03-31T17:28:39Z</time></trkpt><trkpt lat="43.17926503324449" lon="-0.6245441941361343"><ele>240.0</ele><time>2026-03-31T17:28:43Z</time></trkpt><trkpt lat="43.17920967739098" lon="-0.6244804763275246"><ele>240.0</ele><time>2026-03-31T17:28:48Z</time></trkpt><trkpt lat="43.179170155177296" lon="-0.6244087077816997"><ele>240.0</ele><time>2026-03-31T17:28:53Z</time></trkpt><trkpt lat="43.17911803056293" lon="-0.6243235794371745"><ele>240.0</ele><time>2026-03-31T17:28:59Z</time></trkpt><trkpt lat="43.179078098289764" lon="-0.6242410482286616"><ele>240.0</ele><time>2026-03-31T17:29:04Z</time></trkpt><trkpt lat="43.1790322855684" lon="-0.6241665466127407"><ele>240.0</ele><time>2026-03-31T17:29:09Z</time></trkpt><trkpt lat="43.17897555075558" lon="-0.6241092090802906"><ele>240.0</ele><time>2026-03-31T17:29:15Z</time></trkpt><trkpt lat="43.17899825169057" lon="-0.624002196580192"><ele>240.0</ele><time>2026-03-31T17:29:27Z</time></trkpt><trkpt lat="43.179035813409385" lon="-0.6239121619069827"><ele>240.0</ele><time>2026-03-31T17:29:30Z</time></trkpt><trkpt lat="43.179075631717275" lon="-0.6238268551065412"><ele>240.0</ele><time>2026-03-31T17:29:33Z</time></trkpt><trkpt lat="43.17911271898442" lon="-0.6237443784324176"><ele>240.0</ele><time>2026-03-31T17:29:38Z</time></trkpt><trkpt lat="43.17915216690453" lon="-0.6236655056193194"><ele>240.14285714285717</ele><time>2026-03-31T17:29:44Z</time></trkpt><trkpt lat="43.17919584253104" lon="-0.6235785330738216"><ele>240.28571428571428</ele><time>2026-03-31T17:29:49Z</time></trkpt><trkpt lat="43.17923809081863" lon="-0.6234904310114557"><ele>240.42857142857144</ele><time>2026-03-31T17:29:55Z</time></trkpt><trkpt lat="43.17927504444876" lon="-0.6234133701422562"><ele>240.57142857142858</ele><time>2026-03-31T17:30:03Z</time></trkpt><trkpt lat="43.179302070460814" lon="-0.623334571218365"><ele>240.71428571428572</ele><time>2026-03-31T17:30:12Z</time></trkpt><trkpt lat="43.17933833276099" lon="-0.6232589520019491"><ele>240.85714285714286</ele><time>2026-03-31T17:30:19Z</time></trkpt><trkpt lat="43.17937595182864" lon="-0.6231805034457237"><ele>241.0</ele><time>2026-03-31T17:30:26Z</time></trkpt><trkpt lat="43.17931779008134" lon="-0.6232156000419132"><ele>241.0</ele><time>2026-03-31T17:31:21Z</time></trkpt><trkpt lat="43.179302568643436" lon="-0.6233006155954236"><ele>241.00000000000003</ele><time>2026-03-31T17:31:26Z</time></trkpt><trkpt lat="43.1792754777281" lon="-0.6233801696343242"><ele>241.0</ele><time>2026-03-31T17:40:49Z</time></trkpt><trkpt lat="43.17927912000108" lon="-0.62347764869284"><ele>241.0</ele><time>2026-03-31T17:40:56Z</time></trkpt><trkpt lat="43.179237737748096" lon="-0.6235601441872821"><ele>241.00000000000003</ele><time>2026-03-31T17:41:02Z</time></trkpt><trkpt lat="43.179181879938476" lon="-0.6236244117450019"><ele>241.0</ele><time>2026-03-31T17:41:08Z</time></trkpt><trkpt lat="43.179139946296395" lon="-0.6236895828455057"><ele>241.0</ele><time>2026-03-31T17:41:12Z</time></trkpt><trkpt lat="43.179087622935874" lon="-0.6237622049466851"><ele>240.85714285714286</ele><time>2026-03-31T17:41:18Z</time></trkpt><trkpt lat="43.17903356241213" lon="-0.6238141025535976"><ele>240.71428571428572</ele><time>2026-03-31T17:41:24Z</time></trkpt><trkpt lat="43.17900146677025" lon="-0.6238942680330964"><ele>240.57142857142858</ele><time>2026-03-31T17:41:31Z</time></trkpt><trkpt lat="43.179010900514264" lon="-0.6240028402328825"><ele>240.42857142857144</ele><time>2026-03-31T17:41:35Z</time></trkpt><trkpt lat="43.17902917916475" lon="-0.6240984721213338"><ele>240.28571428571428</ele><time>2026-03-31T17:41:38Z</time></trkpt><trkpt lat="43.17902134468186" lon="-0.6241855069308841"><ele>240.14285714285717</ele><time>2026-03-31T17:41:47Z</time></trkpt><trkpt lat="43.179054625452494" lon="-0.6242777275299375"><ele>240.0</ele><time>2026-03-31T17:41:53Z</time></trkpt><trkpt lat="43.17908155525001" lon="-0.6243717391674394"><ele>240.0</ele><time>2026-03-31T17:41:58Z</time></trkpt><trkpt lat="43.17911659762715" lon="-0.6244512828615734"><ele>240.0</ele><time>2026-03-31T17:42:03Z</time></trkpt><trkpt lat="43.17916080456402" lon="-0.6245161352642767"><ele>240.0</ele><time>2026-03-31T17:42:07Z</time></trkpt><trkpt lat="43.179212704706416" lon="-0.6245690865931575"><ele>240.0</ele><time>2026-03-31T17:42:12Z</time></trkpt><trkpt lat="43.17926676502548" lon="-0.6246150361517252"><ele>240.0</ele><time>2026-03-31T17:42:17Z</time></trkpt><trkpt lat="43.179258712260605" lon="-0.6247399881047159"><ele>240.0</ele><time>2026-03-31T17:44:18Z</time></trkpt></trkseg><trkseg><trkpt lat="43.17922232486242" lon="-0.6246723637942377"><ele>240.0</ele><time>2026-03-31T18:39:52Z</time></trkpt><trkpt lat="43.17919458297446" lon="-0.6245560063166585"><ele>240.0</ele><time>2026-03-31T18:39:54Z</time></trkpt><trkpt lat="43.17915133545493" lon="-0.6244232046585295"><ele>240.0</ele><time>2026-03-31T18:39:56Z</time></trkpt><trkpt lat="43.179086065188656" lon="-0.6242920243166601"><ele>240.0</ele><time>2026-03-31T18:39:58Z</time></trkpt><trkpt lat="43.179023452441925" lon="-0.6242519733738398"><ele>240.0</ele><time>2026-03-31T18:39:59Z</time></trkpt><trkpt lat="43.179022940690594" lon="-0.6241353977347436"><ele>240.33333333333334</ele><time>2026-03-31T18:40:01Z</time></trkpt><trkpt lat="43.178961635503164" lon="-0.6240448738033867"><ele>240.66666666666669</ele><time>2026-03-31T18:40:03Z</time></trkpt><trkpt lat="43.17886822642555" lon="-0.6240288812685291"><ele>241.0</ele><time>2026-03-31T18:40:05Z</time></trkpt><trkpt lat="43.17878320629887" lon="-0.6240569524393611"><ele>241.33333333333334</ele><time>2026-03-31T18:40:07Z</time></trkpt><trkpt lat="43.178718611491924" lon="-0.6240320622376287"><ele>241.66666666666669</ele><time>2026-03-31T18:40:09Z</time></trkpt><trkpt lat="43.17868087465936" lon="-0.6239537502591411"><ele>242.0</ele><time>2026-03-31T18:40:11Z</time></trkpt><trkpt lat="43.17866760205889" lon="-0.6238312302285243"><ele>242.00000000000003</ele><time>2026-03-31T18:40:13Z</time></trkpt><trkpt lat="43.178618824029186" lon="-0.6237682550217589"><ele>242.0</ele><time>2026-03-31T18:40:16Z</time></trkpt><trkpt lat="43.17855969719438" lon="-0.6237371356070192"><ele>242.0</ele><time>2026-03-31T18:40:20Z</time></trkpt><trkpt lat="43.178494714488956" lon="-0.6236835297776243"><ele>242.0</ele><time>2026-03-31T18:40:34Z</time></trkpt><trkpt lat="43.178467088293914" lon="-0.6235688286297348"><ele>242.00000000000003</ele><time>2026-03-31T18:40:37Z</time></trkpt><trkpt lat="43.17849883941201" lon="-0.6234694876194121"><ele>242.0</ele><time>2026-03-31T18:40:38Z</time></trkpt><trkpt lat="43.17854782155511" lon="-0.6233487550964781"><ele>242.0</ele><time>2026-03-31T18:40:39Z</time></trkpt><trkpt lat="43.17862135294798" lon="-0.623208057444011"><ele>242.0</ele><time>2026-03-31T18:40:40Z</time></trkpt><trkpt lat="43.178711298541" lon="-0.6230366379166726"><ele>242.0</ele><time>2026-03-31T18:40:41Z</time></trkpt><trkpt lat="43.17881285207012" lon="-0.6228806510300325"><ele>242.0</ele><time>2026-03-31T18:40:42Z</time></trkpt><trkpt lat="43.17889480887865" lon="-0.6226979549295439"><ele>242.25</ele><time>2026-03-31T18:40:43Z</time></trkpt><trkpt lat="43.17897291417062" lon="-0.6225323771121533"><ele>242.5</ele><time>2026-03-31T18:40:44Z</time></trkpt><trkpt lat="43.17905068976331" lon="-0.6223719234811245"><ele>242.75</ele><time>2026-03-31T18:40:45Z</time></trkpt><trkpt lat="43.17912634159419" lon="-0.622216103635767"><ele>243.0</ele><time>2026-03-31T18:40:46Z</time></trkpt><trkpt lat="43.179199817465616" lon="-0.6220712115999896"><ele>242.5</ele><time>2026-03-31T18:40:47Z</time></trkpt><trkpt lat="43.17928174649759" lon="-0.6219265176026234"><ele>242.0</ele><time>2026-03-31T18:40:48Z</time></trkpt><trkpt lat="43.179358231973254" lon="-0.6217926057855794"><ele>241.5</ele><time>2026-03-31T18:40:49Z</time></trkpt><trkpt lat="43.17943941165777" lon="-0.6216723064667196"><ele>241.0</ele><time>2026-03-31T18:40:50Z</time></trkpt><trkpt lat="43.179530219049376" lon="-0.6215678389908549"><ele>241.0</ele><time>2026-03-31T18:40:51Z</time></trkpt><trkpt lat="43.179615011322795" lon="-0.6214655194087298"><ele>241.0</ele><time>2026-03-31T18:40:52Z</time></trkpt><trkpt lat="43.179701094083086" lon="-0.6213664189573458"><ele>241.0</ele><time>2026-03-31T18:40:53Z</time></trkpt><trkpt lat="43.1797953310954" lon="-0.6212800090106557"><ele>241.0</ele><time>2026-03-31T18:40:54Z</time></trkpt><trkpt lat="43.17990373596008" lon="-0.6211909013619147"><ele>240.5</ele><time>2026-03-31T18:40:55Z</time></trkpt><trkpt lat="43.180022422233364" lon="-0.6210989322032139"><ele>240.0</ele><time>2026-03-31T18:40:56Z</time></trkpt><trkpt lat="43.18012836544932" lon="-0.6209803630144021"><ele>239.5</ele><time>2026-03-31T18:40:57Z</time></trkpt><trkpt lat="43.18024807557931" lon="-0.6208917207843866"><ele>239.0</ele><time>2026-03-31T18:40:58Z</time></trkpt><trkpt lat="43.18034636971047" lon="-0.6207713286537905"><ele>239.0</ele><time>2026-03-31T18:40:59Z</time></trkpt><trkpt lat="43.18045240615476" lon="-0.6206719588406836"><ele>239.0</ele><time>2026-03-31T18:41:00Z</time></trkpt><trkpt lat="43.1805617510698" lon="-0.620599811329812"><ele>239.0</ele><time>2026-03-31T18:41:01Z</time></trkpt><trkpt lat="43.18065895330638" lon="-0.6205126943999089"><ele>239.0</ele><time>2026-03-31T18:41:02Z</time></trkpt><trkpt lat="43.18075167762829" lon="-0.6204261270294629"><ele>239.39999999999998</ele><time>2026-03-31T18:41:03Z</time></trkpt><trkpt lat="43.18083754619318" lon="-0.6203395843222717"><ele>239.79999999999998</ele><time>2026-03-31T18:41:04Z</time></trkpt><trkpt lat="43.18089690621256" lon="-0.6202356479728268"><ele>240.20000000000002</ele><time>2026-03-31T18:41:05Z</time></trkpt><trkpt lat="43.180973802435005" lon="-0.6201480503475872"><ele>240.60000000000002</ele><time>2026-03-31T18:41:06Z</time></trkpt><trkpt lat="43.181060825093184" lon="-0.6200906188773136"><ele>241.0</ele><time>2026-03-31T18:41:07Z</time></trkpt><trkpt lat="43.181218661883115" lon="-0.6200634719701231"><ele>240.99999999999997</ele><time>2026-03-31T18:41:08Z</time></trkpt><trkpt lat="43.18130514798497" lon="-0.6200151708363866"><ele>241.0</ele><time>2026-03-31T18:41:09Z</time></trkpt><trkpt lat="43.1813699732924" lon="-0.6199558381133445"><ele>241.0</ele><time>2026-03-31T18:41:10Z</time></trkpt><trkpt lat="43.18142044837833" lon="-0.6198819773461045"><ele>241.0</ele><time>2026-03-31T18:41:11Z</time></trkpt><trkpt lat="43.181454165667844" lon="-0.6198042575454098"><ele>240.99999999999997</ele><time>2026-03-31T18:41:12Z</time></trkpt><trkpt lat="43.18150011750774" lon="-0.6196342163683234"><ele>241.0</ele><time>2026-03-31T18:41:14Z</time></trkpt><trkpt lat="43.18155491156628" lon="-0.6195562985324818"><ele>240.66666666666666</ele><time>2026-03-31T18:41:15Z</time></trkpt><trkpt lat="43.18163841324481" lon="-0.6195116157916067"><ele>240.33333333333331</ele><time>2026-03-31T18:41:16Z</time></trkpt><trkpt lat="43.181733661369776" lon="-0.6194896979327519"><ele>240.0</ele><time>2026-03-31T18:41:17Z</time></trkpt><trkpt lat="43.18181592619244" lon="-0.6194907718100672"><ele>239.66666666666669</ele><time>2026-03-31T18:41:18Z</time></trkpt><trkpt lat="43.18189677467041" lon="-0.6194929050556224"><ele>239.33333333333334</ele><time>2026-03-31T18:41:19Z</time></trkpt><trkpt lat="43.181992071373394" lon="-0.6195056879126717"><ele>239.0</ele><time>2026-03-31T18:41:20Z</time></trkpt><trkpt lat="43.18208508560518" lon="-0.6195327177007491"><ele>238.6</ele><time>2026-03-31T18:41:22Z</time></trkpt><trkpt lat="43.18206412291263" lon="-0.6193457869791882"><ele>238.2</ele><time>2026-03-31T18:41:25Z</time></trkpt><trkpt lat="43.182000602017986" lon="-0.6193035837736913"><ele>237.79999999999998</ele><time>2026-03-31T18:41:26Z</time></trkpt><trkpt lat="43.18195527103451" lon="-0.6192287025927672"><ele>237.39999999999998</ele><time>2026-03-31T18:41:27Z</time></trkpt><trkpt lat="43.1819038038764" lon="-0.6191491400438168"><ele>237.0</ele><time>2026-03-31T18:41:29Z</time></trkpt><trkpt lat="43.18180870339714" lon="-0.6192729505932111"><ele>237.0</ele><time>2026-03-31T18:41:30Z</time></trkpt><trkpt lat="43.18173175338784" lon="-0.6193801933912374"><ele>237.0</ele><time>2026-03-31T18:41:32Z</time></trkpt><trkpt lat="43.18159721508905" lon="-0.6193889494442175"><ele>237.0</ele><time>2026-03-31T18:41:34Z</time></trkpt><trkpt lat="43.18152622510618" lon="-0.6193771253195713"><ele>237.0</ele><time>2026-03-31T18:41:35Z</time></trkpt><trkpt lat="43.18145748698475" lon="-0.6193779025213564"><ele>237.0</ele><time>2026-03-31T18:41:36Z</time></trkpt><trkpt lat="43.181401205802494" lon="-0.6192831310174081"><ele>237.6</ele><time>2026-03-31T18:41:37Z</time></trkpt><trkpt lat="43.18135897202417" lon="-0.6192124230122602"><ele>238.2</ele><time>2026-03-31T18:41:38Z</time></trkpt><trkpt lat="43.18130271443792" lon="-0.6191257898793826"><ele>238.8</ele><time>2026-03-31T18:41:39Z</time></trkpt><trkpt lat="43.18125500185398" lon="-0.6190288488418023"><ele>239.4</ele><time>2026-03-31T18:41:40Z</time></trkpt><trkpt lat="43.18125035315682" lon="-0.6188740773531087"><ele>240.0</ele><time>2026-03-31T18:41:42Z</time></trkpt><trkpt lat="43.181338875306146" lon="-0.6187661801610856"><ele>240.0</ele><time>2026-03-31T18:41:44Z</time></trkpt><trkpt lat="43.181445200979255" lon="-0.6186909714954512"><ele>240.0</ele><time>2026-03-31T18:41:46Z</time></trkpt><trkpt lat="43.18154235748678" lon="-0.6187495321039674"><ele>240.0</ele><time>2026-03-31T18:41:48Z</time></trkpt><trkpt lat="43.18157854927803" lon="-0.6188525060163442"><ele>240.0</ele><time>2026-03-31T18:41:50Z</time></trkpt><trkpt lat="43.181638233867375" lon="-0.6189309959625297"><ele>240.0</ele><time>2026-03-31T18:41:53Z</time></trkpt><trkpt lat="43.18174864006853" lon="-0.6191008205833205"><ele>239.4</ele><time>2026-03-31T18:42:22Z</time></trkpt><trkpt lat="43.18161419710742" lon="-0.6191687774854243"><ele>238.8</ele><time>2026-03-31T18:43:17Z</time></trkpt><trkpt lat="43.18167895301505" lon="-0.6191642367262098"><ele>238.2</ele><time>2026-03-31T18:43:44Z</time></trkpt><trkpt lat="43.18162200788894" lon="-0.6190404459696454"><ele>237.6</ele><time>2026-03-31T18:47:44Z</time></trkpt><trkpt lat="43.18164753946008" lon="-0.6191506037208718"><ele>237.0</ele><time>2026-03-31T18:48:53Z</time></trkpt><trkpt lat="43.18166076195984" lon="-0.6190615716671592"><ele>237.0</ele><time>2026-03-31T18:49:23Z</time></trkpt><trkpt lat="43.18166645068645" lon="-0.6191675078654194"><ele>237.0</ele><time>2026-03-31T18:49:46Z</time></trkpt><trkpt lat="43.181641239508956" lon="-0.6190318834477875"><ele>237.0</ele><time>2026-03-31T18:50:24Z</time></trkpt><trkpt lat="43.18167497243885" lon="-0.6191143821059578"><ele>237.0</ele><time>2026-03-31T18:55:40Z</time></trkpt><trkpt lat="43.18161527956796" lon="-0.6190543439876155"><ele>237.0</ele><time>2026-03-31T18:57:58Z</time></trkpt><trkpt lat="43.18162384023132" lon="-0.6192191018435387"><ele>237.0</ele><time>2026-03-31T18:58:51Z</time></trkpt><trkpt lat="43.18162002197625" lon="-0.6191174135161138"><ele>237.0</ele><time>2026-03-31T19:01:34Z</time></trkpt><trkpt lat="43.181581658718756" lon="-0.619213884751043"><ele>237.0</ele><time>2026-03-31T19:02:41Z</time></trkpt><trkpt lat="43.181575271958295" lon="-0.6193015562656514"><ele>237.0</ele><time>2026-03-31T19:03:58Z</time></trkpt><trkpt lat="43.18149365393626" lon="-0.6192766378892659"><ele>237.0</ele><time>2026-03-31T19:05:11Z</time></trkpt><trkpt lat="43.181544746729486" lon="-0.6193273066906356"><ele>237.0</ele><time>2026-03-31T19:06:06Z</time></trkpt><trkpt lat="43.181647246947996" lon="-0.6192095868217363"><ele>237.0</ele><time>2026-03-31T19:06:23Z</time></trkpt><trkpt lat="43.18157489968636" lon="-0.6193283523344417"><ele>237.0</ele><time>2026-03-31T19:06:40Z</time></trkpt><trkpt lat="43.181567165056" lon="-0.6192381879875969"><ele>237.0</ele><time>2026-03-31T19:06:50Z</time></trkpt><trkpt lat="43.18149090094081" lon="-0.6191090246349911"><ele>237.0</ele><time>2026-03-31T19:16:08Z</time></trkpt><trkpt lat="43.18159983232817" lon="-0.6192269140030462"><ele>237.0</ele><time>2026-03-31T19:16:26Z</time></trkpt><trkpt lat="43.18157700766048" lon="-0.6191450635261074"><ele>237.0</ele><time>2026-03-31T19:17:21Z</time></trkpt><trkpt lat="43.18155235063695" lon="-0.6190591345257312"><ele>237.0</ele><time>2026-03-31T19:17:33Z</time></trkpt><trkpt lat="43.181586229822635" lon="-0.6191520519735934"><ele>237.0</ele><time>2026-03-31T19:17:46Z</time></trkpt><trkpt lat="43.18166315096462" lon="-0.6191881965630538"><ele>237.0</ele><time>2026-03-31T19:19:06Z</time></trkpt><trkpt lat="43.18171447753628" lon="-0.6191114205296335"><ele>237.0</ele><time>2026-03-31T19:19:12Z</time></trkpt><trkpt lat="43.181778540203965" lon="-0.619091278452695"><ele>237.0</ele><time>2026-03-31T19:19:18Z</time></trkpt><trkpt lat="43.18184490591156" lon="-0.6191028184272139"><ele>237.0</ele><time>2026-03-31T19:20:03Z</time></trkpt><trkpt lat="43.18193707315453" lon="-0.6191349693977707"><ele>237.0</ele><time>2026-03-31T19:20:06Z</time></trkpt><trkpt lat="43.18202312701857" lon="-0.6192655178942761"><ele>237.0</ele><time>2026-03-31T19:20:08Z</time></trkpt><trkpt lat="43.18206749374401" lon="-0.6193464889199805"><ele>237.0</ele><time>2026-03-31T19:20:09Z</time></trkpt><trkpt lat="43.182108420464026" lon="-0.6194723043094826"><ele>237.0</ele><time>2026-03-31T19:20:11Z</time></trkpt><trkpt lat="43.18207799062577" lon="-0.6195589621523648"><ele>237.0</ele><time>2026-03-31T19:20:13Z</time></trkpt><trkpt lat="43.181953149788" lon="-0.6195619855609257"><ele>237.39999999999998</ele><time>2026-03-31T19:20:15Z</time></trkpt><trkpt lat="43.181882678718786" lon="-0.6195593742195225"><ele>237.79999999999998</ele><time>2026-03-31T19:20:16Z</time></trkpt><trkpt lat="43.18181481956922" lon="-0.6195696143079674"><ele>238.2</ele><time>2026-03-31T19:20:17Z</time></trkpt><trkpt lat="43.181745132858836" lon="-0.6196322505534075"><ele>238.6</ele><time>2026-03-31T19:20:19Z</time></trkpt><trkpt lat="43.181829851874596" lon="-0.619690952264376"><ele>239.0</ele><time>2026-03-31T19:20:21Z</time></trkpt><trkpt lat="43.18178355451467" lon="-0.6199454555446425"><ele>239.0</ele><time>2026-03-31T19:20:22Z</time></trkpt><trkpt lat="43.18173678257645" lon="-0.6200189227219112"><ele>239.0</ele><time>2026-03-31T19:20:23Z</time></trkpt><trkpt lat="43.18153433320478" lon="-0.6200554412698095"><ele>239.0</ele><time>2026-03-31T19:20:25Z</time></trkpt><trkpt lat="43.18141380376311" lon="-0.6200716021130568"><ele>239.0</ele><time>2026-03-31T19:20:27Z</time></trkpt><trkpt lat="43.1812770830591" lon="-0.620086724637012"><ele>239.39999999999998</ele><time>2026-03-31T19:20:29Z</time></trkpt><trkpt lat="43.18121642205221" lon="-0.6201121725014576"><ele>239.79999999999998</ele><time>2026-03-31T19:20:30Z</time></trkpt><trkpt lat="43.18112137251291" lon="-0.620156608640187"><ele>240.20000000000002</ele><time>2026-03-31T19:20:32Z</time></trkpt><trkpt lat="43.181034773110724" lon="-0.6202009383064764"><ele>240.60000000000002</ele><time>2026-03-31T19:20:33Z</time></trkpt><trkpt lat="43.180938944670444" lon="-0.6202668963139383"><ele>241.0</ele><time>2026-03-31T19:20:34Z</time></trkpt><trkpt lat="43.180854385953836" lon="-0.6203446647693871"><ele>241.0</ele><time>2026-03-31T19:20:35Z</time></trkpt><trkpt lat="43.18076685713194" lon="-0.6204389136280367"><ele>241.00000000000003</ele><time>2026-03-31T19:20:36Z</time></trkpt><trkpt lat="43.180679385710995" lon="-0.620538189341517"><ele>241.00000000000003</ele><time>2026-03-31T19:20:37Z</time></trkpt><trkpt lat="43.18058928206178" lon="-0.6206284280600373"><ele>241.0</ele><time>2026-03-31T19:20:38Z</time></trkpt><trkpt lat="43.18049548028165" lon="-0.620714684615216"><ele>241.0</ele><time>2026-03-31T19:20:39Z</time></trkpt><trkpt lat="43.18040296518048" lon="-0.620798787010678"><ele>240.60000000000002</ele><time>2026-03-31T19:20:40Z</time></trkpt><trkpt lat="43.18031170094589" lon="-0.6208789658028846"><ele>240.20000000000002</ele><time>2026-03-31T19:20:41Z</time></trkpt><trkpt lat="43.18023708777762" lon="-0.6209421988731721"><ele>239.79999999999998</ele><time>2026-03-31T19:20:42Z</time></trkpt><trkpt lat="43.18015777581739" lon="-0.6210114552704815"><ele>239.39999999999998</ele><time>2026-03-31T19:20:43Z</time></trkpt><trkpt lat="43.180077371966156" lon="-0.6210789783620899"><ele>239.0</ele><time>2026-03-31T19:20:44Z</time></trkpt><trkpt lat="43.18000496276285" lon="-0.6211459394818102"><ele>238.83333333333334</ele><time>2026-03-31T19:20:45Z</time></trkpt><trkpt lat="43.17993437880774" lon="-0.6212088500490449"><ele>238.66666666666669</ele><time>2026-03-31T19:20:46Z</time></trkpt><trkpt lat="43.17985714324094" lon="-0.6212704502180569"><ele>238.5</ele><time>2026-03-31T19:20:47Z</time></trkpt><trkpt lat="43.179778779482405" lon="-0.6213274223013089"><ele>238.33333333333331</ele><time>2026-03-31T19:20:48Z</time></trkpt><trkpt lat="43.17970490714264" lon="-0.621396588704065"><ele>238.16666666666666</ele><time>2026-03-31T19:20:49Z</time></trkpt><trkpt lat="43.179637621860614" lon="-0.6214779281262292"><ele>238.0</ele><time>2026-03-31T19:20:50Z</time></trkpt><trkpt lat="43.179570789753825" lon="-0.6215648812853036"><ele>238.60000000000002</ele><time>2026-03-31T19:20:51Z</time></trkpt><trkpt lat="43.1794987397039" lon="-0.6216502790891026"><ele>239.20000000000002</ele><time>2026-03-31T19:20:52Z</time></trkpt><trkpt lat="43.17942434248698" lon="-0.6217426954328444"><ele>239.8</ele><time>2026-03-31T19:20:53Z</time></trkpt><trkpt lat="43.17935451101044" lon="-0.6218312149298826"><ele>240.4</ele><time>2026-03-31T19:20:54Z</time></trkpt><trkpt lat="43.179285666410514" lon="-0.6219371889611012"><ele>241.0</ele><time>2026-03-31T19:20:55Z</time></trkpt><trkpt lat="43.179228612581134" lon="-0.6220456496346333"><ele>241.0</ele><time>2026-03-31T19:20:56Z</time></trkpt><trkpt lat="43.179175500928956" lon="-0.6221567295332311"><ele>241.00000000000003</ele><time>2026-03-31T19:20:57Z</time></trkpt><trkpt lat="43.1791257386068" lon="-0.6222724918995497"><ele>241.00000000000003</ele><time>2026-03-31T19:20:58Z</time></trkpt><trkpt lat="43.179073306751185" lon="-0.6223805941303623"><ele>241.0</ele><time>2026-03-31T19:20:59Z</time></trkpt><trkpt lat="43.17901931882474" lon="-0.6224902958568385"><ele>241.0</ele><time>2026-03-31T19:21:00Z</time></trkpt><trkpt lat="43.17896012213496" lon="-0.6226018793285595"><ele>241.20000000000002</ele><time>2026-03-31T19:21:01Z</time></trkpt><trkpt lat="43.17890415478205" lon="-0.6227151982174626"><ele>241.40000000000003</ele><time>2026-03-31T19:21:02Z</time></trkpt><trkpt lat="43.17884862025314" lon="-0.6228292806920519"><ele>241.6</ele><time>2026-03-31T19:21:03Z</time></trkpt><trkpt lat="43.178789302535" lon="-0.6229479990838531"><ele>241.8</ele><time>2026-03-31T19:21:04Z</time></trkpt><trkpt lat="43.178731359213344" lon="-0.6230645243902269"><ele>242.0</ele><time>2026-03-31T19:21:05Z</time></trkpt><trkpt lat="43.17867578514147" lon="-0.6231746804599354"><ele>242.00000000000003</ele><time>2026-03-31T19:21:06Z</time></trkpt><trkpt lat="43.17862841716914" lon="-0.623271838009121"><ele>242.0</ele><time>2026-03-31T19:21:07Z</time></trkpt><trkpt lat="43.17858622988528" lon="-0.6233571813630936"><ele>242.0</ele><time>2026-03-31T19:21:08Z</time></trkpt><trkpt lat="43.1785187527031" lon="-0.6234825427799219"><ele>242.0</ele><time>2026-03-31T19:21:10Z</time></trkpt><trkpt lat="43.17848799679544" lon="-0.6235964044308677"><ele>242.00000000000003</ele><time>2026-03-31T19:21:12Z</time></trkpt><trkpt lat="43.17852611463561" lon="-0.6236838765961566"><ele>242.0</ele><time>2026-03-31T19:21:14Z</time></trkpt><trkpt lat="43.17859412782232" lon="-0.6237318290981919"><ele>242.00000000000003</ele><time>2026-03-31T19:21:17Z</time></trkpt><trkpt lat="43.17865109415248" lon="-0.6237727749624271"><ele>242.0</ele><time>2026-03-31T19:21:32Z</time></trkpt><trkpt lat="43.178739762580456" lon="-0.6237826714876155"><ele>242.0</ele><time>2026-03-31T19:21:34Z</time></trkpt><trkpt lat="43.178818752941574" lon="-0.6237878872379438"><ele>242.0</ele><time>2026-03-31T19:21:36Z</time></trkpt><trkpt lat="43.178874581275835" lon="-0.6238477626147068"><ele>242.00000000000003</ele><time>2026-03-31T19:21:38Z</time></trkpt><trkpt lat="43.17889331624258" lon="-0.6239537482771365"><ele>242.0</ele><time>2026-03-31T19:21:40Z</time></trkpt><trkpt lat="43.17894437644859" lon="-0.6240680892162687"><ele>241.66666666666669</ele><time>2026-03-31T19:21:42Z</time></trkpt><trkpt lat="43.179017662677204" lon="-0.6241629229091884"><ele>241.33333333333334</ele><time>2026-03-31T19:21:44Z</time></trkpt><trkpt lat="43.17907167559708" lon="-0.6242693444752951"><ele>241.0</ele><time>2026-03-31T19:21:46Z</time></trkpt><trkpt lat="43.17910589784814" lon="-0.6243488353907469"><ele>240.66666666666669</ele><time>2026-03-31T19:21:47Z</time></trkpt><trkpt lat="43.17913979622391" lon="-0.6244838862393177"><ele>240.33333333333334</ele><time>2026-03-31T19:21:49Z</time></trkpt><trkpt lat="43.179206796840226" lon="-0.6245377958129031"><ele>240.0</ele><time>2026-03-31T19:21:51Z</time></trkpt><trkpt lat="43.179288080174096" lon="-0.6245960712304203"><ele>240.0</ele><time>2026-03-31T19:21:53Z</time></trkpt><trkpt lat="43.179318089603804" lon="-0.624683211864652"><ele>240.0</ele><time>2026-03-31T19:30:03Z</time></trkpt><trkpt lat="43.17926725021606" lon="-0.6247350379827987"><ele>240.0</ele><time>2026-03-31T19:54:12Z</time></trkpt><trkpt lat="43.178965040166226" lon="-0.6244597479403242"><ele>242.0</ele><time>2026-03-31T19:57:04Z</time></trkpt><trkpt lat="43.179254003883266" lon="-0.6247384254656999"><ele>240.0</ele><time>2026-03-31T19:57:34Z</time></trkpt></trkseg><trkseg><trkpt lat="43.17922555237071" lon="-0.6240283425410055"><ele>240.0</ele><time>2026-03-31T20:14:25Z</time></trkpt><trkpt lat="43.179240463281126" lon="-0.6243533094618785"><ele>240.0</ele><time>2026-03-31T20:14:26Z</time></trkpt><trkpt lat="43.179256373914164" lon="-0.624731455675563"><ele>240.0</ele><time>2026-03-31T20:14:28Z</time></trkpt><trkpt lat="43.17929930873297" lon="-0.6246680570194741"><ele>240.0</ele><time>2026-03-31T20:35:41Z</time></trkpt><trkpt lat="43.17926044926515" lon="-0.6247644235842288"><ele>240.0</ele><time>2026-03-31T20:39:03Z</time></trkpt><trkpt lat="43.17925727864213" lon="-0.6246620804684939"><ele>240.0</ele><time>2026-04-01T06:17:42Z</time></trkpt><trkpt lat="43.179229487589694" lon="-0.6245725836774016"><ele>240.0</ele><time>2026-04-01T06:28:01Z</time></trkpt><trkpt lat="43.17918533306425" lon="-0.6244977795381932"><ele>240.0</ele><time>2026-04-01T06:28:06Z</time></trkpt><trkpt lat="43.17913722636262" lon="-0.6244321585162861"><ele>240.0</ele><time>2026-04-01T06:28:11Z</time></trkpt><trkpt lat="43.17908647406053" lon="-0.6243645374888491"><ele>240.0</ele><time>2026-04-01T06:28:16Z</time></trkpt><trkpt lat="43.17905488740544" lon="-0.6242788062849046"><ele>240.0</ele><time>2026-04-01T06:28:21Z</time></trkpt><trkpt lat="43.17902761975946" lon="-0.6241940602474817"><ele>240.0</ele><time>2026-04-01T06:28:26Z</time></trkpt><trkpt lat="43.178987261809034" lon="-0.6241250653675585"><ele>240.0</ele><time>2026-04-01T06:28:32Z</time></trkpt><trkpt lat="43.17898270174578" lon="-0.6240248970508558"><ele>240.0</ele><time>2026-04-01T06:28:42Z</time></trkpt><trkpt lat="43.17903716149025" lon="-0.623929472940987"><ele>240.0</ele><time>2026-04-01T06:28:46Z</time></trkpt><trkpt lat="43.179068378951804" lon="-0.6238513458170926"><ele>240.0</ele><time>2026-04-01T06:28:48Z</time></trkpt><trkpt lat="43.17909325901724" lon="-0.6237698030393105"><ele>240.0</ele><time>2026-04-01T06:28:53Z</time></trkpt><trkpt lat="43.179136961341094" lon="-0.6236939066815538"><ele>240.0</ele><time>2026-04-01T06:28:59Z</time></trkpt><trkpt lat="43.179172592466536" lon="-0.6236147869802758"><ele>240.0</ele><time>2026-04-01T06:29:04Z</time></trkpt><trkpt lat="43.17921294185836" lon="-0.6235428751862161"><ele>240.0</ele><time>2026-04-01T06:29:09Z</time></trkpt><trkpt lat="43.17925135034617" lon="-0.6234627804217524"><ele>240.0</ele><time>2026-04-01T06:29:15Z</time></trkpt><trkpt lat="43.17929063561577" lon="-0.6233808572298267"><ele>240.0</ele><time>2026-04-01T06:29:20Z</time></trkpt><trkpt lat="43.17931746436834" lon="-0.6233024696501164"><ele>240.0</ele><time>2026-04-01T06:29:31Z</time></trkpt><trkpt lat="43.17927331141674" lon="-0.6232301475457321"><ele>240.0</ele><time>2026-04-01T06:31:04Z</time></trkpt><trkpt lat="43.17928462422436" lon="-0.6233246787499381"><ele>240.0</ele><time>2026-04-01T06:38:42Z</time></trkpt><trkpt lat="43.17927890913373" lon="-0.6234131048228568"><ele>240.0</ele><time>2026-04-01T06:38:48Z</time></trkpt><trkpt lat="43.17923703878988" lon="-0.6234925389357103"><ele>240.0</ele><time>2026-04-01T06:38:55Z</time></trkpt><trkpt lat="43.17919948764753" lon="-0.623570931769936"><ele>240.0</ele><time>2026-04-01T06:39:01Z</time></trkpt><trkpt lat="43.17915526566259" lon="-0.6236548994418175"><ele>240.0</ele><time>2026-04-01T06:39:07Z</time></trkpt><trkpt lat="43.17911716891921" lon="-0.623724542489276"><ele>240.0</ele><time>2026-04-01T06:39:13Z</time></trkpt><trkpt lat="43.17906464965886" lon="-0.6237862928514775"><ele>240.0</ele><time>2026-04-01T06:39:21Z</time></trkpt><trkpt lat="43.17900848179073" lon="-0.6238295285805194"><ele>240.0</ele><time>2026-04-01T06:39:31Z</time></trkpt><trkpt lat="43.17898756993841" lon="-0.6239200358894682"><ele>240.0</ele><time>2026-04-01T06:39:37Z</time></trkpt><trkpt lat="43.17899326331592" lon="-0.6240302540611564"><ele>240.0</ele><time>2026-04-01T06:39:41Z</time></trkpt><trkpt lat="43.17900462461326" lon="-0.6241180709806996"><ele>240.0</ele><time>2026-04-01T06:39:46Z</time></trkpt><trkpt lat="43.17902915470688" lon="-0.6242013867825262"><ele>240.0</ele><time>2026-04-01T06:39:52Z</time></trkpt><trkpt lat="43.17905709341557" lon="-0.6242905006159863"><ele>240.0</ele><time>2026-04-01T06:39:59Z</time></trkpt><trkpt lat="43.17907453178369" lon="-0.6243799393177124"><ele>240.0</ele><time>2026-04-01T06:40:05Z</time></trkpt><trkpt lat="43.17911038808428" lon="-0.6244607465962619"><ele>240.0</ele><time>2026-04-01T06:40:11Z</time></trkpt><trkpt lat="43.179159172041004" lon="-0.624530388546871"><ele>240.0</ele><time>2026-04-01T06:40:17Z</time></trkpt><trkpt lat="43.179214903833476" lon="-0.6245858155343623"><ele>240.0</ele><time>2026-04-01T06:40:23Z</time></trkpt><trkpt lat="43.17927778765516" lon="-0.6246380887169238"><ele>240.0</ele><time>2026-04-01T06:40:31Z</time></trkpt><trkpt lat="43.179333230695" lon="-0.6246839760678997"><ele>240.0</ele><time>2026-04-01T06:40:42Z</time></trkpt><trkpt lat="43.17931841963307" lon="-0.6247705508242063"><ele>240.0</ele><time>2026-04-01T06:40:52Z</time></trkpt><trkpt lat="43.17931422277965" lon="-0.6246769883294494"><ele>240.0</ele><time>2026-04-01T06:41:17Z</time></trkpt><trkpt lat="43.17926306422083" lon="-0.6247293246567325"><ele>240.0</ele><time>2026-04-01T06:43:07Z</time></trkpt><trkpt lat="43.17929382968865" lon="-0.6246305257656266"><ele>240.0</ele><time>2026-04-01T06:48:15Z</time></trkpt><trkpt lat="43.179280219537155" lon="-0.6247352941777937"><ele>240.0</ele><time>2026-04-01T06:55:19Z</time></trkpt><trkpt lat="43.1792800228061" lon="-0.624647202168557"><ele>240.0</ele><time>2026-04-01T07:08:01Z</time></trkpt><trkpt lat="43.179213462371756" lon="-0.6246907578787232"><ele>240.0</ele><time>2026-04-01T07:16:44Z</time></trkpt><trkpt lat="43.17917365256697" lon="-0.6245717235512269"><ele>240.0</ele><time>2026-04-01T07:16:47Z</time></trkpt><trkpt lat="43.1791382493781" lon="-0.6244745612781837"><ele>240.0</ele><time>2026-04-01T07:16:49Z</time></trkpt><trkpt lat="43.179097265182904" lon="-0.6243977482129051"><ele>240.0</ele><time>2026-04-01T07:16:51Z</time></trkpt><trkpt lat="43.17906544463943" lon="-0.6243132776285371"><ele>240.0</ele><time>2026-04-01T07:16:53Z</time></trkpt><trkpt lat="43.179033955137776" lon="-0.6242223742753024"><ele>240.0</ele><time>2026-04-01T07:16:55Z</time></trkpt><trkpt lat="43.17899301792923" lon="-0.6241305600809719"><ele>240.0</ele><time>2026-04-01T07:16:57Z</time></trkpt><trkpt lat="43.17895043933829" lon="-0.6240587976162407"><ele>240.0</ele><time>2026-04-01T07:16:59Z</time></trkpt><trkpt lat="43.178898089570204" lon="-0.6240014871971672"><ele>240.28571428571428</ele><time>2026-04-01T07:17:03Z</time></trkpt><trkpt lat="43.17883043437233" lon="-0.6240141448598119"><ele>240.57142857142856</ele><time>2026-04-01T07:17:16Z</time></trkpt><trkpt lat="43.17874683491827" lon="-0.6240470621760262"><ele>240.85714285714283</ele><time>2026-04-01T07:17:20Z</time></trkpt><trkpt lat="43.17868192733525" lon="-0.6240210795788969"><ele>241.14285714285714</ele><time>2026-04-01T07:17:23Z</time></trkpt><trkpt lat="43.17863553281052" lon="-0.6239484991893586"><ele>241.4285714285714</ele><time>2026-04-01T07:17:27Z</time></trkpt><trkpt lat="43.17857242863611" lon="-0.6239515394268166"><ele>241.7142857142857</ele><time>2026-04-01T07:17:31Z</time></trkpt><trkpt lat="43.1786373459717" lon="-0.623912530768129"><ele>242.0</ele><time>2026-04-01T07:18:08Z</time></trkpt><trkpt lat="43.17870056569565" lon="-0.6239018790929433"><ele>242.0</ele><time>2026-04-01T07:18:15Z</time></trkpt><trkpt lat="43.17863733086174" lon="-0.6238936160033228"><ele>241.99999999999997</ele><time>2026-04-01T07:20:46Z</time></trkpt><trkpt lat="43.17869274436097" lon="-0.6238341837639841"><ele>242.0</ele><time>2026-04-01T07:28:43Z</time></trkpt><trkpt lat="43.17875886030498" lon="-0.6238458193664203"><ele>242.0</ele><time>2026-04-01T07:33:30Z</time></trkpt><trkpt lat="43.1786970642567" lon="-0.6238722147363635"><ele>241.99999999999997</ele><time>2026-04-01T07:42:13Z</time></trkpt><trkpt lat="43.178654301470935" lon="-0.6239386750069402"><ele>242.0</ele><time>2026-04-01T07:43:23Z</time></trkpt><trkpt lat="43.17859126309453" lon="-0.6239319543191646"><ele>242.0</ele><time>2026-04-01T07:43:29Z</time></trkpt><trkpt lat="43.17863185734313" lon="-0.6238412430007318"><ele>242.00000000000003</ele><time>2026-04-01T07:44:11Z</time></trkpt><trkpt lat="43.17857384782185" lon="-0.6237506294314742"><ele>242.0</ele><time>2026-04-01T07:44:17Z</time></trkpt><trkpt lat="43.17851395885983" lon="-0.6236869851023712"><ele>242.0</ele><time>2026-04-01T07:44:19Z</time></trkpt><trkpt lat="43.17846241001866" lon="-0.6236356884164043"><ele>242.0</ele><time>2026-04-01T07:44:21Z</time></trkpt><trkpt lat="43.17850287752906" lon="-0.6234804246680485"><ele>242.00000000000003</ele><time>2026-04-01T07:44:26Z</time></trkpt><trkpt lat="43.178548480433705" lon="-0.6233864106563687"><ele>242.0</ele><time>2026-04-01T07:44:27Z</time></trkpt><trkpt lat="43.178596588232224" lon="-0.6232791603693593"><ele>242.0</ele><time>2026-04-01T07:44:28Z</time></trkpt><trkpt lat="43.17865151794399" lon="-0.6231591381550804"><ele>242.0</ele><time>2026-04-01T07:44:29Z</time></trkpt><trkpt lat="43.178714162929275" lon="-0.6230257690489135"><ele>242.0</ele><time>2026-04-01T07:44:30Z</time></trkpt><trkpt lat="43.17878127955138" lon="-0.6228878117471539"><ele>242.0</ele><time>2026-04-01T07:44:31Z</time></trkpt><trkpt lat="43.17885129528217" lon="-0.6227477082890926"><ele>242.25</ele><time>2026-04-01T07:44:32Z</time></trkpt><trkpt lat="43.17892051581844" lon="-0.6226047213551207"><ele>242.5</ele><time>2026-04-01T07:44:33Z</time></trkpt><trkpt lat="43.1789892828843" lon="-0.622460462851736"><ele>242.75</ele><time>2026-04-01T07:44:34Z</time></trkpt><trkpt lat="43.179055828194215" lon="-0.6223186507286993"><ele>243.0</ele><time>2026-04-01T07:44:35Z</time></trkpt><trkpt lat="43.17912404622733" lon="-0.6221794185499918"><ele>242.60000000000002</ele><time>2026-04-01T07:44:36Z</time></trkpt><trkpt lat="43.17918892228926" lon="-0.622055161413542"><ele>242.20000000000002</ele><time>2026-04-01T07:44:37Z</time></trkpt><trkpt lat="43.1792435195091" lon="-0.6219612032064163"><ele>241.8</ele><time>2026-04-01T07:44:38Z</time></trkpt><trkpt lat="43.17929933492308" lon="-0.6218520240195982"><ele>241.4</ele><time>2026-04-01T07:44:39Z</time></trkpt><trkpt lat="43.1793707722061" lon="-0.6217465551733214"><ele>241.0</ele><time>2026-04-01T07:44:40Z</time></trkpt><trkpt lat="43.17945048785052" lon="-0.6216423943170974"><ele>241.0</ele><time>2026-04-01T07:44:41Z</time></trkpt><trkpt lat="43.179531622265145" lon="-0.621542716151722"><ele>241.00000000000003</ele><time>2026-04-01T07:44:42Z</time></trkpt><trkpt lat="43.17961024331181" lon="-0.6214548136106806"><ele>241.00000000000003</ele><time>2026-04-01T07:44:43Z</time></trkpt><trkpt lat="43.1796923460454" lon="-0.6213706724795671"><ele>241.0</ele><time>2026-04-01T07:44:44Z</time></trkpt><trkpt lat="43.17976779988985" lon="-0.6212940406199059"><ele>241.0</ele><time>2026-04-01T07:44:45Z</time></trkpt><trkpt lat="43.17985532312215" lon="-0.6212143163558703"><ele>240.60000000000002</ele><time>2026-04-01T07:44:46Z</time></trkpt><trkpt lat="43.17995091177569" lon="-0.62113417897543"><ele>240.20000000000002</ele><time>2026-04-01T07:44:47Z</time></trkpt><trkpt lat="43.18004870067739" lon="-0.6210498771361036"><ele>239.79999999999998</ele><time>2026-04-01T07:44:48Z</time></trkpt><trkpt lat="43.18014488456354" lon="-0.6209786908286503"><ele>239.39999999999998</ele><time>2026-04-01T07:44:49Z</time></trkpt><trkpt lat="43.18022962630235" lon="-0.6209052895357198"><ele>239.0</ele><time>2026-04-01T07:44:50Z</time></trkpt><trkpt lat="43.180307352031654" lon="-0.6208329925241102"><ele>239.00000000000003</ele><time>2026-04-01T07:44:51Z</time></trkpt><trkpt lat="43.18037486657175" lon="-0.6207696927946359"><ele>239.0</ele><time>2026-04-01T07:44:52Z</time></trkpt><trkpt lat="43.18043829708394" lon="-0.620704464053326"><ele>239.0</ele><time>2026-04-01T07:44:53Z</time></trkpt><trkpt lat="43.18050754979778" lon="-0.6206441595469158"><ele>239.0</ele><time>2026-04-01T07:44:54Z</time></trkpt><trkpt lat="43.18057127041039" lon="-0.6205808994482714"><ele>239.00000000000003</ele><time>2026-04-01T07:44:55Z</time></trkpt><trkpt lat="43.18063543696966" lon="-0.6205190513204287"><ele>239.0</ele><time>2026-04-01T07:44:56Z</time></trkpt><trkpt lat="43.1807014727712" lon="-0.6204463859375451"><ele>239.33333333333334</ele><time>2026-04-01T07:44:57Z</time></trkpt><trkpt lat="43.180762229906776" lon="-0.6203778294051441"><ele>239.66666666666669</ele><time>2026-04-01T07:44:58Z</time></trkpt><trkpt lat="43.18082257022988" lon="-0.6203136626970501"><ele>240.0</ele><time>2026-04-01T07:44:59Z</time></trkpt><trkpt lat="43.180888094573774" lon="-0.6202500887111856"><ele>240.33333333333331</ele><time>2026-04-01T07:45:00Z</time></trkpt><trkpt lat="43.180954882482034" lon="-0.6201962750054886"><ele>240.66666666666666</ele><time>2026-04-01T07:45:01Z</time></trkpt><trkpt lat="43.181018042802926" lon="-0.6201567481306658"><ele>241.0</ele><time>2026-04-01T07:45:02Z</time></trkpt><trkpt lat="43.18111833125288" lon="-0.6200902035745363"><ele>240.99999999999997</ele><time>2026-04-01T07:45:04Z</time></trkpt><trkpt lat="43.18118014788006" lon="-0.6200494495900948"><ele>241.0</ele><time>2026-04-01T07:45:06Z</time></trkpt><trkpt lat="43.18124089157062" lon="-0.6200129215105131"><ele>241.0</ele><time>2026-04-01T07:45:10Z</time></trkpt><trkpt lat="43.18132315159148" lon="-0.6199922584269675"><ele>241.0</ele><time>2026-04-01T07:45:31Z</time></trkpt><trkpt lat="43.18140288290427" lon="-0.6198917522434512"><ele>240.99999999999997</ele><time>2026-04-01T07:45:33Z</time></trkpt><trkpt lat="43.181428725699405" lon="-0.6198109304079128"><ele>241.0</ele><time>2026-04-01T07:45:34Z</time></trkpt><trkpt lat="43.181476898364785" lon="-0.6196708672939844"><ele>240.60000000000002</ele><time>2026-04-01T07:45:36Z</time></trkpt><trkpt lat="43.18156809986758" lon="-0.6195789542519438"><ele>240.20000000000002</ele><time>2026-04-01T07:45:38Z</time></trkpt><trkpt lat="43.18167919003415" lon="-0.6196147512448511"><ele>239.79999999999998</ele><time>2026-04-01T07:45:40Z</time></trkpt><trkpt lat="43.18172442734536" lon="-0.6196824404565022"><ele>239.39999999999998</ele><time>2026-04-01T07:45:41Z</time></trkpt><trkpt lat="43.18176328638524" lon="-0.6197792777761444"><ele>239.0</ele><time>2026-04-01T07:45:42Z</time></trkpt><trkpt lat="43.18181250982599" lon="-0.6199014851270513"><ele>239.0</ele><time>2026-04-01T07:45:43Z</time></trkpt><trkpt lat="43.18188362468521" lon="-0.620012588756397"><ele>239.0</ele><time>2026-04-01T07:45:44Z</time></trkpt><trkpt lat="43.18197008520863" lon="-0.6201025002683193"><ele>239.0</ele><time>2026-04-01T07:45:45Z</time></trkpt><trkpt lat="43.18208113449823" lon="-0.620189556408941"><ele>239.0</ele><time>2026-04-01T07:45:46Z</time></trkpt><trkpt lat="43.18221250241978" lon="-0.6202787412534011"><ele>239.0</ele><time>2026-04-01T07:45:47Z</time></trkpt><trkpt lat="43.182344314356364" lon="-0.6203694170163633"><ele>239.0</ele><time>2026-04-01T07:45:48Z</time></trkpt><trkpt lat="43.182478395276526" lon="-0.620458369239284"><ele>239.0</ele><time>2026-04-01T07:45:49Z</time></trkpt><trkpt lat="43.18261560884552" lon="-0.6205496596291363"><ele>239.0</ele><time>2026-04-01T07:45:50Z</time></trkpt><trkpt lat="43.18275146316322" lon="-0.6206471134846477"><ele>239.0</ele><time>2026-04-01T07:45:51Z</time></trkpt><trkpt lat="43.18288746126406" lon="-0.620745717941944"><ele>239.0</ele><time>2026-04-01T07:45:52Z</time></trkpt><trkpt lat="43.18302332581491" lon="-0.620841470063577"><ele>239.0</ele><time>2026-04-01T07:45:53Z</time></trkpt><trkpt lat="43.183161392003136" lon="-0.6209382805869236"><ele>239.0</ele><time>2026-04-01T07:45:54Z</time></trkpt><trkpt lat="43.18329881149461" lon="-0.6210372588446141"><ele>239.0</ele><time>2026-04-01T07:45:55Z</time></trkpt><trkpt lat="43.183439633793675" lon="-0.6211379915327039"><ele>239.0</ele><time>2026-04-01T07:45:56Z</time></trkpt><trkpt lat="43.18358136319232" lon="-0.6212393744546361"><ele>239.0</ele><time>2026-04-01T07:45:57Z</time></trkpt><trkpt lat="43.18372198084288" lon="-0.6213386004863474"><ele>239.0</ele><time>2026-04-01T07:45:58Z</time></trkpt><trkpt lat="43.18386231557561" lon="-0.6214367942867159"><ele>239.0</ele><time>2026-04-01T07:45:59Z</time></trkpt><trkpt lat="43.18399963416853" lon="-0.6215337881951207"><ele>239.25</ele><time>2026-04-01T07:46:00Z</time></trkpt><trkpt lat="43.184126582193464" lon="-0.6216207481090631"><ele>239.5</ele><time>2026-04-01T07:46:01Z</time></trkpt><trkpt lat="43.184244423897894" lon="-0.6216985359088382"><ele>239.75</ele><time>2026-04-01T07:46:02Z</time></trkpt><trkpt lat="43.1843534929645" lon="-0.6217587447214853"><ele>240.0</ele><time>2026-04-01T07:46:03Z</time></trkpt><trkpt lat="43.18445834683559" lon="-0.6217974864356764"><ele>240.0</ele><time>2026-04-01T07:46:04Z</time></trkpt><trkpt lat="43.184558712470846" lon="-0.6218258480801717"><ele>240.0</ele><time>2026-04-01T07:46:05Z</time></trkpt><trkpt lat="43.184618668912556" lon="-0.6219442863477461"><ele>240.0</ele><time>2026-04-01T07:46:06Z</time></trkpt><trkpt lat="43.18468441563372" lon="-0.6220380970565347"><ele>240.0</ele><time>2026-04-01T07:46:07Z</time></trkpt><trkpt lat="43.18477957766446" lon="-0.6221400379636237"><ele>240.0</ele><time>2026-04-01T07:46:08Z</time></trkpt><trkpt lat="43.18488857471336" lon="-0.6222336848079789"><ele>239.0</ele><time>2026-04-01T07:46:09Z</time></trkpt><trkpt lat="43.18501259782129" lon="-0.6223344663105108"><ele>238.0</ele><time>2026-04-01T07:46:10Z</time></trkpt><trkpt lat="43.185144753643065" lon="-0.6224406287539908"><ele>237.0</ele><time>2026-04-01T07:46:11Z</time></trkpt><trkpt lat="43.185281661801284" lon="-0.6225594338955628"><ele>237.0</ele><time>2026-04-01T07:46:12Z</time></trkpt><trkpt lat="43.18541726007974" lon="-0.6226810563376515"><ele>237.0</ele><time>2026-04-01T07:46:13Z</time></trkpt><trkpt lat="43.18555244548997" lon="-0.6228080786613267"><ele>237.0</ele><time>2026-04-01T07:46:14Z</time></trkpt><trkpt lat="43.18568540253497" lon="-0.6229363689103108"><ele>236.66666666666669</ele><time>2026-04-01T07:46:15Z</time></trkpt><trkpt lat="43.18581999178338" lon="-0.6230695787802044"><ele>236.33333333333334</ele><time>2026-04-01T07:46:16Z</time></trkpt><trkpt lat="43.18594343438362" lon="-0.6231932621804898"><ele>236.0</ele><time>2026-04-01T07:46:17Z</time></trkpt><trkpt lat="43.186061278987914" lon="-0.6233105858441127"><ele>236.0</ele><time>2026-04-01T07:46:18Z</time></trkpt><trkpt lat="43.186170653542185" lon="-0.6234158295718295"><ele>236.00000000000003</ele><time>2026-04-01T07:46:19Z</time></trkpt><trkpt lat="43.18627284531278" lon="-0.6234976901191774"><ele>236.00000000000003</ele><time>2026-04-01T07:46:20Z</time></trkpt><trkpt lat="43.18636501910644" lon="-0.6235628501988514"><ele>236.0</ele><time>2026-04-01T07:46:21Z</time></trkpt><trkpt lat="43.186442808154744" lon="-0.6236112561883421"><ele>236.0</ele><time>2026-04-01T07:46:22Z</time></trkpt><trkpt lat="43.18650101490826" lon="-0.6236591910066926"><ele>236.0</ele><time>2026-04-01T07:46:23Z</time></trkpt><trkpt lat="43.1866347841193" lon="-0.6236015179764522"><ele>236.00000000000003</ele><time>2026-04-01T07:46:25Z</time></trkpt><trkpt lat="43.18668693725889" lon="-0.623548572810767"><ele>236.00000000000003</ele><time>2026-04-01T07:46:26Z</time></trkpt><trkpt lat="43.18667820478419" lon="-0.6233944766950814"><ele>236.0</ele><time>2026-04-01T07:46:27Z</time></trkpt><trkpt lat="43.18668592202617" lon="-0.6232677228525219"><ele>236.0</ele><time>2026-04-01T07:46:28Z</time></trkpt><trkpt lat="43.18669047542958" lon="-0.6231100543028844"><ele>236.0</ele><time>2026-04-01T07:46:29Z</time></trkpt><trkpt lat="43.1866986801937" lon="-0.6229505023867364"><ele>236.00000000000003</ele><time>2026-04-01T07:46:30Z</time></trkpt><trkpt lat="43.18670541034021" lon="-0.6227993055715282"><ele>236.00000000000003</ele><time>2026-04-01T07:46:31Z</time></trkpt><trkpt lat="43.18671184443598" lon="-0.6226617282144078"><ele>236.0</ele><time>2026-04-01T07:46:32Z</time></trkpt><trkpt lat="43.18671889154152" lon="-0.6224972422594806"><ele>236.0</ele><time>2026-04-01T07:46:33Z</time></trkpt><trkpt lat="43.18672799313114" lon="-0.6223273573882362"><ele>235.8</ele><time>2026-04-01T07:46:34Z</time></trkpt><trkpt lat="43.18673793509523" lon="-0.6221763733099427"><ele>235.60000000000002</ele><time>2026-04-01T07:46:35Z</time></trkpt><trkpt lat="43.18675050398915" lon="-0.6220334672404284"><ele>235.4</ele><time>2026-04-01T07:46:36Z</time></trkpt><trkpt lat="43.186769937411384" lon="-0.6218903000194512"><ele>235.2</ele><time>2026-04-01T07:46:37Z</time></trkpt><trkpt lat="43.186800012907945" lon="-0.6217475538559657"><ele>235.0</ele><time>2026-04-01T07:46:38Z</time></trkpt><trkpt lat="43.18683756007897" lon="-0.6216060146219001"><ele>235.0</ele><time>2026-04-01T07:46:39Z</time></trkpt><trkpt lat="43.186881895334196" lon="-0.6214648317290863"><ele>235.0</ele><time>2026-04-01T07:46:40Z</time></trkpt><trkpt lat="43.18691458215133" lon="-0.621356179900798"><ele>235.0</ele><time>2026-04-01T07:46:41Z</time></trkpt><trkpt lat="43.1869493923891" lon="-0.6212058759987171"><ele>235.0</ele><time>2026-04-01T07:46:42Z</time></trkpt><trkpt lat="43.18698588347156" lon="-0.6210564413457761"><ele>235.0</ele><time>2026-04-01T07:46:43Z</time></trkpt><trkpt lat="43.18702283061997" lon="-0.6209124243859563"><ele>235.2</ele><time>2026-04-01T07:46:44Z</time></trkpt><trkpt lat="43.18706125068497" lon="-0.6207677100938032"><ele>235.4</ele><time>2026-04-01T07:46:45Z</time></trkpt><trkpt lat="43.18709900828125" lon="-0.6206246598321202"><ele>235.60000000000002</ele><time>2026-04-01T07:46:46Z</time></trkpt><trkpt lat="43.18713362457779" lon="-0.620485976345395"><ele>235.8</ele><time>2026-04-01T07:46:47Z</time></trkpt><trkpt lat="43.18716487528976" lon="-0.6203599992128432"><ele>236.0</ele><time>2026-04-01T07:46:48Z</time></trkpt><trkpt lat="43.18718487539828" lon="-0.6202557928412661"><ele>236.25</ele><time>2026-04-01T07:46:49Z</time></trkpt><trkpt lat="43.18721982269722" lon="-0.6200988285349841"><ele>236.5</ele><time>2026-04-01T07:46:51Z</time></trkpt><trkpt lat="43.18724700042713" lon="-0.619990068457744"><ele>236.75</ele><time>2026-04-01T07:46:52Z</time></trkpt><trkpt lat="43.18727857178072" lon="-0.6198475718873894"><ele>237.0</ele><time>2026-04-01T07:46:53Z</time></trkpt><trkpt lat="43.1873483870513" lon="-0.6196196750447202"><ele>237.0</ele><time>2026-04-01T07:46:54Z</time></trkpt><trkpt lat="43.187359681638995" lon="-0.619446819255447"><ele>237.0</ele><time>2026-04-01T07:46:55Z</time></trkpt><trkpt lat="43.18738792800351" lon="-0.6192855570775622"><ele>237.0</ele><time>2026-04-01T07:46:56Z</time></trkpt><trkpt lat="43.18738730599486" lon="-0.6191315900206334"><ele>237.0</ele><time>2026-04-01T07:46:57Z</time></trkpt><trkpt lat="43.187385507159746" lon="-0.618993696018111"><ele>237.0</ele><time>2026-04-01T07:46:58Z</time></trkpt><trkpt lat="43.18738579009454" lon="-0.6188693491612769"><ele>237.0</ele><time>2026-04-01T07:46:59Z</time></trkpt><trkpt lat="43.187389578657495" lon="-0.6187705197359956"><ele>237.0</ele><time>2026-04-01T07:47:00Z</time></trkpt><trkpt lat="43.187402712543744" lon="-0.6186844837339049"><ele>237.0</ele><time>2026-04-01T07:47:01Z</time></trkpt><trkpt lat="43.1874196663665" lon="-0.6185744730518651"><ele>237.0</ele><time>2026-04-01T07:47:03Z</time></trkpt><trkpt lat="43.1875698800136" lon="-0.618592520652572"><ele>237.2</ele><time>2026-04-01T07:47:05Z</time></trkpt><trkpt lat="43.18767712059217" lon="-0.6185963430053106"><ele>237.39999999999998</ele><time>2026-04-01T07:47:06Z</time></trkpt><trkpt lat="43.187773634596184" lon="-0.6185637235151923"><ele>237.60000000000002</ele><time>2026-04-01T07:47:07Z</time></trkpt><trkpt lat="43.18786417262826" lon="-0.6185328536858916"><ele>237.8</ele><time>2026-04-01T07:47:08Z</time></trkpt><trkpt lat="43.187938513761466" lon="-0.6185055144182838"><ele>238.0</ele><time>2026-04-01T07:47:09Z</time></trkpt><trkpt lat="43.1880089977462" lon="-0.6184813684900976"><ele>238.0</ele><time>2026-04-01T07:47:10Z</time></trkpt><trkpt lat="43.18807334345952" lon="-0.6184605103500664"><ele>238.0</ele><time>2026-04-01T07:47:11Z</time></trkpt><trkpt lat="43.18819301066679" lon="-0.6184245642155547"><ele>238.0</ele><time>2026-04-01T07:47:13Z</time></trkpt><trkpt lat="43.18829087648901" lon="-0.6183787637961946"><ele>238.0</ele><time>2026-04-01T07:47:14Z</time></trkpt><trkpt lat="43.18839484553066" lon="-0.6183764581299558"><ele>238.0</ele><time>2026-04-01T07:47:15Z</time></trkpt><trkpt lat="43.188498206821386" lon="-0.6183734655623413"><ele>237.4</ele><time>2026-04-01T07:47:16Z</time></trkpt><trkpt lat="43.18860103728882" lon="-0.6183882114662994"><ele>236.8</ele><time>2026-04-01T07:47:17Z</time></trkpt><trkpt lat="43.18871359161145" lon="-0.6184126648724663"><ele>236.2</ele><time>2026-04-01T07:47:18Z</time></trkpt><trkpt lat="43.18881985958271" lon="-0.6184595963563354"><ele>235.6</ele><time>2026-04-01T07:47:19Z</time></trkpt><trkpt lat="43.18892236584846" lon="-0.6185246449220021"><ele>235.0</ele><time>2026-04-01T07:47:20Z</time></trkpt><trkpt lat="43.18901571664454" lon="-0.6185999815526821"><ele>234.83333333333331</ele><time>2026-04-01T07:47:21Z</time></trkpt><trkpt lat="43.189093813117886" lon="-0.6186688708089976"><ele>234.66666666666666</ele><time>2026-04-01T07:47:22Z</time></trkpt><trkpt lat="43.18918533490969" lon="-0.6187295447784479"><ele>234.5</ele><time>2026-04-01T07:47:23Z</time></trkpt><trkpt lat="43.18927941940123" lon="-0.6187553598801825"><ele>234.33333333333331</ele><time>2026-04-01T07:47:24Z</time></trkpt><trkpt lat="43.18936318419571" lon="-0.6187497592074631"><ele>234.16666666666666</ele><time>2026-04-01T07:47:25Z</time></trkpt><trkpt lat="43.18943668662141" lon="-0.618731019530948"><ele>234.0</ele><time>2026-04-01T07:47:26Z</time></trkpt><trkpt lat="43.18952128716818" lon="-0.6186973914629514"><ele>234.0</ele><time>2026-04-01T07:47:27Z</time></trkpt><trkpt lat="43.18962593188225" lon="-0.6186567288884014"><ele>234.0</ele><time>2026-04-01T07:47:29Z</time></trkpt><trkpt lat="43.18969005272313" lon="-0.6186401267588355"><ele>234.0</ele><time>2026-04-01T07:47:30Z</time></trkpt><trkpt lat="43.18974024558247" lon="-0.6185533190469232"><ele>234.0</ele><time>2026-04-01T07:47:31Z</time></trkpt><trkpt lat="43.1897975119413" lon="-0.6184594856178373"><ele>234.0</ele><time>2026-04-01T07:47:32Z</time></trkpt><trkpt lat="43.18984792828521" lon="-0.6183456928890866"><ele>234.0</ele><time>2026-04-01T07:47:33Z</time></trkpt><trkpt lat="43.189908433898175" lon="-0.6182253169864171"><ele>234.0</ele><time>2026-04-01T07:47:34Z</time></trkpt><trkpt lat="43.189955714880014" lon="-0.6180978165670848"><ele>234.0</ele><time>2026-04-01T07:47:35Z</time></trkpt><trkpt lat="43.18999891697075" lon="-0.6179950190707887"><ele>234.0</ele><time>2026-04-01T07:47:36Z</time></trkpt><trkpt lat="43.190040613345964" lon="-0.6178969798254642"><ele>234.0</ele><time>2026-04-01T07:47:37Z</time></trkpt><trkpt lat="43.19008285257617" lon="-0.6177991052202294"><ele>234.0</ele><time>2026-04-01T07:47:38Z</time></trkpt><trkpt lat="43.19012962127859" lon="-0.6177218478900508"><ele>234.0</ele><time>2026-04-01T07:47:39Z</time></trkpt><trkpt lat="43.19017285696388" lon="-0.617638850743651"><ele>234.0</ele><time>2026-04-01T07:47:40Z</time></trkpt><trkpt lat="43.190234912111755" lon="-0.6175452878024461"><ele>233.99999999999997</ele><time>2026-04-01T07:47:41Z</time></trkpt><trkpt lat="43.19026446309891" lon="-0.6173933529671514"><ele>233.99999999999997</ele><time>2026-04-01T07:47:42Z</time></trkpt><trkpt lat="43.19030692302579" lon="-0.6172555320333222"><ele>234.0</ele><time>2026-04-01T07:47:43Z</time></trkpt><trkpt lat="43.19034989480723" lon="-0.6171161597021434"><ele>234.0</ele><time>2026-04-01T07:47:44Z</time></trkpt><trkpt lat="43.19039016314263" lon="-0.6169805091033737"><ele>234.5</ele><time>2026-04-01T07:47:45Z</time></trkpt><trkpt lat="43.19043538273057" lon="-0.6168416929537636"><ele>235.0</ele><time>2026-04-01T07:47:46Z</time></trkpt><trkpt lat="43.190485581928804" lon="-0.6167083789414367"><ele>235.5</ele><time>2026-04-01T07:47:47Z</time></trkpt><trkpt lat="43.19053765105964" lon="-0.6165699019872956"><ele>236.0</ele><time>2026-04-01T07:47:48Z</time></trkpt><trkpt lat="43.1905890683416" lon="-0.6164276649364308"><ele>236.0</ele><time>2026-04-01T07:47:49Z</time></trkpt><trkpt lat="43.190643523989216" lon="-0.6162847629642146"><ele>236.0</ele><time>2026-04-01T07:47:50Z</time></trkpt><trkpt lat="43.190703601978136" lon="-0.6161357209440569"><ele>236.0</ele><time>2026-04-01T07:47:51Z</time></trkpt><trkpt lat="43.19076843302224" lon="-0.615987671779062"><ele>236.0</ele><time>2026-04-01T07:47:52Z</time></trkpt><trkpt lat="43.19083032568801" lon="-0.6158394276220222"><ele>235.25</ele><time>2026-04-01T07:47:53Z</time></trkpt><trkpt lat="43.190889500145744" lon="-0.6156951529329547"><ele>234.5</ele><time>2026-04-01T07:47:54Z</time></trkpt><trkpt lat="43.19094873460425" lon="-0.6155525954288646"><ele>233.75</ele><time>2026-04-01T07:47:55Z</time></trkpt><trkpt lat="43.191007263331294" lon="-0.6154119135967328"><ele>233.0</ele><time>2026-04-01T07:47:56Z</time></trkpt><trkpt lat="43.191065605827006" lon="-0.6152686367854897"><ele>232.5</ele><time>2026-04-01T07:47:57Z</time></trkpt><trkpt lat="43.191123086436896" lon="-0.6151287273195014"><ele>232.0</ele><time>2026-04-01T07:47:58Z</time></trkpt><trkpt lat="43.19118343435437" lon="-0.6149880430185396"><ele>231.5</ele><time>2026-04-01T07:47:59Z</time></trkpt><trkpt lat="43.19124245851195" lon="-0.6148460863551497"><ele>231.0</ele><time>2026-04-01T07:48:00Z</time></trkpt><trkpt lat="43.19129989282855" lon="-0.6147071764863214"><ele>231.0</ele><time>2026-04-01T07:48:01Z</time></trkpt><trkpt lat="43.191359679678044" lon="-0.614567749042617"><ele>231.00000000000003</ele><time>2026-04-01T07:48:02Z</time></trkpt><trkpt lat="43.1914182160213" lon="-0.614433888184688"><ele>231.00000000000003</ele><time>2026-04-01T07:48:03Z</time></trkpt><trkpt lat="43.19147225039424" lon="-0.6143148464026119"><ele>231.0</ele><time>2026-04-01T07:48:04Z</time></trkpt><trkpt lat="43.191535938123174" lon="-0.6142012287103209"><ele>231.0</ele><time>2026-04-01T07:48:05Z</time></trkpt><trkpt lat="43.191597764000285" lon="-0.6141024062680253"><ele>229.8</ele><time>2026-04-01T07:48:06Z</time></trkpt><trkpt lat="43.191658431594895" lon="-0.6140124694624738"><ele>228.60000000000002</ele><time>2026-04-01T07:48:07Z</time></trkpt><trkpt lat="43.19172232781925" lon="-0.6139202250725861"><ele>227.4</ele><time>2026-04-01T07:48:08Z</time></trkpt><trkpt lat="43.191793247087425" lon="-0.6138212695413533"><ele>226.2</ele><time>2026-04-01T07:48:09Z</time></trkpt><trkpt lat="43.191871455055946" lon="-0.613720311942539"><ele>225.0</ele><time>2026-04-01T07:48:10Z</time></trkpt><trkpt lat="43.19194691673604" lon="-0.6136319928017283"><ele>225.0</ele><time>2026-04-01T07:48:11Z</time></trkpt><trkpt lat="43.19202174598031" lon="-0.6135488171475755"><ele>225.0</ele><time>2026-04-01T07:48:12Z</time></trkpt><trkpt lat="43.192091003398374" lon="-0.6134777710937219"><ele>225.0</ele><time>2026-04-01T07:48:13Z</time></trkpt><trkpt lat="43.19216312481998" lon="-0.6134068570636201"><ele>225.0</ele><time>2026-04-01T07:48:14Z</time></trkpt><trkpt lat="43.192231789663516" lon="-0.613344190170719"><ele>225.0</ele><time>2026-04-01T07:48:15Z</time></trkpt><trkpt lat="43.19229380848922" lon="-0.6132888902024475"><ele>225.0</ele><time>2026-04-01T07:48:16Z</time></trkpt><trkpt lat="43.1923509699207" lon="-0.61323665185201"><ele>224.6</ele><time>2026-04-01T07:48:17Z</time></trkpt><trkpt lat="43.19243359921825" lon="-0.6131439063048238"><ele>224.2</ele><time>2026-04-01T07:48:19Z</time></trkpt><trkpt lat="43.192475430794644" lon="-0.6130483802247587"><ele>223.8</ele><time>2026-04-01T07:48:21Z</time></trkpt><trkpt lat="43.19253465767117" lon="-0.6129155789416174"><ele>223.4</ele><time>2026-04-01T07:48:23Z</time></trkpt><trkpt lat="43.192615221337846" lon="-0.6128872535821489"><ele>223.0</ele><time>2026-04-01T07:48:25Z</time></trkpt><trkpt lat="43.19273846874109" lon="-0.6128745054924393"><ele>223.0</ele><time>2026-04-01T07:48:27Z</time></trkpt><trkpt lat="43.1928020121428" lon="-0.6128444308314612"><ele>223.0</ele><time>2026-04-01T07:48:28Z</time></trkpt><trkpt lat="43.19286309176988" lon="-0.612799152443897"><ele>223.0</ele><time>2026-04-01T07:48:29Z</time></trkpt><trkpt lat="43.19292561295165" lon="-0.6127498643920496"><ele>223.0</ele><time>2026-04-01T07:48:30Z</time></trkpt><trkpt lat="43.19299232341429" lon="-0.6126944512040494"><ele>223.0</ele><time>2026-04-01T07:48:31Z</time></trkpt><trkpt lat="43.19306091343077" lon="-0.6126365064044568"><ele>223.0</ele><time>2026-04-01T07:48:32Z</time></trkpt><trkpt lat="43.19312912721471" lon="-0.6125801659294965"><ele>223.0</ele><time>2026-04-01T07:48:33Z</time></trkpt><trkpt lat="43.19319794742974" lon="-0.6125211497177104"><ele>222.99999999999997</ele><time>2026-04-01T07:48:34Z</time></trkpt><trkpt lat="43.19326550655516" lon="-0.6124645611371184"><ele>223.0</ele><time>2026-04-01T07:48:35Z</time></trkpt><trkpt lat="43.19332978022885" lon="-0.61241232130019"><ele>223.0</ele><time>2026-04-01T07:48:36Z</time></trkpt><trkpt lat="43.19339270470032" lon="-0.6123544448926731"><ele>223.0</ele><time>2026-04-01T07:48:37Z</time></trkpt><trkpt lat="43.19345968118598" lon="-0.6122968673977727"><ele>222.99999999999997</ele><time>2026-04-01T07:48:38Z</time></trkpt><trkpt lat="43.1935214554034" lon="-0.6122426590244351"><ele>223.0</ele><time>2026-04-01T07:48:39Z</time></trkpt><trkpt lat="43.19358679022217" lon="-0.612187769969108"><ele>223.0</ele><time>2026-04-01T07:48:40Z</time></trkpt><trkpt lat="43.19365208569215" lon="-0.6121341880480826"><ele>223.0</ele><time>2026-04-01T07:48:41Z</time></trkpt><trkpt lat="43.19372015802277" lon="-0.612077915068794"><ele>223.0</ele><time>2026-04-01T07:48:42Z</time></trkpt><trkpt lat="43.19382652264348" lon="-0.611995675206657"><ele>223.0</ele><time>2026-04-01T07:48:44Z</time></trkpt><trkpt lat="43.19392664021224" lon="-0.6119378844975312"><ele>223.0</ele><time>2026-04-01T07:48:46Z</time></trkpt><trkpt lat="43.19401274581341" lon="-0.6118480245888004"><ele>222.99999999999997</ele><time>2026-04-01T07:48:48Z</time></trkpt><trkpt lat="43.19406527520288" lon="-0.6117098699796417"><ele>223.0</ele><time>2026-04-01T07:48:50Z</time></trkpt><trkpt lat="43.194064806545015" lon="-0.6115460294460155"><ele>223.0</ele><time>2026-04-01T07:48:52Z</time></trkpt><trkpt lat="43.194037554106025" lon="-0.6114666769812207"><ele>223.0</ele><time>2026-04-01T07:48:53Z</time></trkpt><trkpt lat="43.1939950973121" lon="-0.6113982179923024"><ele>222.99999999999997</ele><time>2026-04-01T07:48:54Z</time></trkpt><trkpt lat="43.19394293471111" lon="-0.6113424305052186"><ele>223.0</ele><time>2026-04-01T07:48:55Z</time></trkpt><trkpt lat="43.193878492801005" lon="-0.6112830620417105"><ele>223.0</ele><time>2026-04-01T07:48:56Z</time></trkpt><trkpt lat="43.19379988690599" lon="-0.611214346888724"><ele>223.0</ele><time>2026-04-01T07:48:57Z</time></trkpt><trkpt lat="43.19371493024441" lon="-0.6111349339291163"><ele>223.0</ele><time>2026-04-01T07:48:58Z</time></trkpt><trkpt lat="43.19363077616065" lon="-0.6110568078179653"><ele>223.0</ele><time>2026-04-01T07:48:59Z</time></trkpt><trkpt lat="43.19354308156301" lon="-0.6109793778888051"><ele>223.0</ele><time>2026-04-01T07:49:00Z</time></trkpt><trkpt lat="43.1934548128889" lon="-0.6108976512472413"><ele>222.60000000000002</ele><time>2026-04-01T07:49:01Z</time></trkpt><trkpt lat="43.19336561616001" lon="-0.6108145753601854"><ele>222.20000000000002</ele><time>2026-04-01T07:49:02Z</time></trkpt><trkpt lat="43.19327563731067" lon="-0.6107291655488287"><ele>221.8</ele><time>2026-04-01T07:49:03Z</time></trkpt><trkpt lat="43.1931856346638" lon="-0.6106442633533378"><ele>221.4</ele><time>2026-04-01T07:49:04Z</time></trkpt><trkpt lat="43.1930947367729" lon="-0.6105579545599567"><ele>221.0</ele><time>2026-04-01T07:49:05Z</time></trkpt><trkpt lat="43.19300458229679" lon="-0.6104706564166862"><ele>221.50000000000003</ele><time>2026-04-01T07:49:06Z</time></trkpt><trkpt lat="43.19292835543259" lon="-0.6103958673132485"><ele>222.0</ele><time>2026-04-01T07:49:07Z</time></trkpt><trkpt lat="43.19286351064528" lon="-0.6103312719590754"><ele>222.5</ele><time>2026-04-01T07:49:08Z</time></trkpt><trkpt lat="43.192805118303596" lon="-0.6102790764649755"><ele>223.0</ele><time>2026-04-01T07:49:09Z</time></trkpt><trkpt lat="43.19274521052188" lon="-0.6102354556447015"><ele>223.50000000000003</ele><time>2026-04-01T07:49:11Z</time></trkpt><trkpt lat="43.192660967274925" lon="-0.6101420566402722"><ele>224.0</ele><time>2026-04-01T07:49:17Z</time></trkpt><trkpt lat="43.19260354178942" lon="-0.6100652544183257"><ele>224.0</ele><time>2026-04-01T07:49:18Z</time></trkpt><trkpt lat="43.19254585177434" lon="-0.6099802663215738"><ele>223.99999999999997</ele><time>2026-04-01T07:49:19Z</time></trkpt><trkpt lat="43.19249387915184" lon="-0.6098876909179646"><ele>223.99999999999997</ele><time>2026-04-01T07:49:20Z</time></trkpt><trkpt lat="43.19244589376206" lon="-0.609780958408914"><ele>224.0</ele><time>2026-04-01T07:49:21Z</time></trkpt><trkpt lat="43.19240049373913" lon="-0.6096646538546474"><ele>224.0</ele><time>2026-04-01T07:49:22Z</time></trkpt><trkpt lat="43.19235574782717" lon="-0.6095398877795145"><ele>223.6</ele><time>2026-04-01T07:49:23Z</time></trkpt><trkpt lat="43.19231395651608" lon="-0.6094084734363832"><ele>223.2</ele><time>2026-04-01T07:49:24Z</time></trkpt><trkpt lat="43.192279585469144" lon="-0.6092673073450338"><ele>222.79999999999998</ele><time>2026-04-01T07:49:25Z</time></trkpt><trkpt lat="43.19225741611282" lon="-0.6091191030151333"><ele>222.39999999999998</ele><time>2026-04-01T07:49:26Z</time></trkpt><trkpt lat="43.19224538373819" lon="-0.6089631602915748"><ele>222.0</ele><time>2026-04-01T07:49:27Z</time></trkpt><trkpt lat="43.19224423242626" lon="-0.6087955198116366"><ele>219.25</ele><time>2026-04-01T07:49:28Z</time></trkpt><trkpt lat="43.1922473796368" lon="-0.6086209610868152"><ele>216.5</ele><time>2026-04-01T07:49:29Z</time></trkpt><trkpt lat="43.19224880490946" lon="-0.6084395113620299"><ele>213.75</ele><time>2026-04-01T07:49:30Z</time></trkpt><trkpt lat="43.19224958228703" lon="-0.6082553566987429"><ele>211.0</ele><time>2026-04-01T07:49:31Z</time></trkpt><trkpt lat="43.192250806996896" lon="-0.6080672973910546"><ele>211.0</ele><time>2026-04-01T07:49:32Z</time></trkpt><trkpt lat="43.1922526846329" lon="-0.607889429383477"><ele>211.0</ele><time>2026-04-01T07:49:33Z</time></trkpt><trkpt lat="43.19225577652159" lon="-0.6077241547466954"><ele>211.0</ele><time>2026-04-01T07:49:34Z</time></trkpt><trkpt lat="43.19225624909101" lon="-0.6075777127189332"><ele>211.0</ele><time>2026-04-01T07:49:35Z</time></trkpt><trkpt lat="43.192258100854716" lon="-0.6074479152374191"><ele>212.8</ele><time>2026-04-01T07:49:36Z</time></trkpt><trkpt lat="43.192263621431785" lon="-0.6073274600234274"><ele>214.60000000000002</ele><time>2026-04-01T07:49:37Z</time></trkpt><trkpt lat="43.19227280646403" lon="-0.6072352540458388"><ele>216.4</ele><time>2026-04-01T07:49:38Z</time></trkpt><trkpt lat="43.19231396187003" lon="-0.607092048133178"><ele>218.2</ele><time>2026-04-01T07:49:40Z</time></trkpt><trkpt lat="43.19246784735025" lon="-0.6070789321074016"><ele>220.0</ele><time>2026-04-01T07:49:45Z</time></trkpt><trkpt lat="43.19239007270388" lon="-0.6072847032393851"><ele>220.6</ele><time>2026-04-01T07:49:48Z</time></trkpt><trkpt lat="43.192302033904014" lon="-0.6073376055157946"><ele>221.2</ele><time>2026-04-01T07:49:50Z</time></trkpt><trkpt lat="43.192266944823025" lon="-0.607463586538991"><ele>221.8</ele><time>2026-04-01T07:49:52Z</time></trkpt><trkpt lat="43.19226380033436" lon="-0.6075520020391291"><ele>222.4</ele><time>2026-04-01T07:49:53Z</time></trkpt><trkpt lat="43.192269396802374" lon="-0.607689543359558"><ele>223.0</ele><time>2026-04-01T07:49:55Z</time></trkpt><trkpt lat="43.192267469141164" lon="-0.6078334042173026"><ele>220.60000000000002</ele><time>2026-04-01T07:49:57Z</time></trkpt><trkpt lat="43.192268014216744" lon="-0.607952352350247"><ele>218.20000000000002</ele><time>2026-04-01T07:49:59Z</time></trkpt><trkpt lat="43.19226213147021" lon="-0.608108375871824"><ele>215.8</ele><time>2026-04-01T07:50:01Z</time></trkpt><trkpt lat="43.19226101768833" lon="-0.6082888939998243"><ele>213.4</ele><time>2026-04-01T07:50:03Z</time></trkpt><trkpt lat="43.192261856686315" lon="-0.6083871844509389"><ele>211.0</ele><time>2026-04-01T07:50:04Z</time></trkpt><trkpt lat="43.192263799733034" lon="-0.6084958993374093"><ele>210.99999999999997</ele><time>2026-04-01T07:50:05Z</time></trkpt><trkpt lat="43.192264915603864" lon="-0.6086100864707821"><ele>211.0</ele><time>2026-04-01T07:50:06Z</time></trkpt><trkpt lat="43.19226654295447" lon="-0.6087210271162675"><ele>211.0</ele><time>2026-04-01T07:50:07Z</time></trkpt><trkpt lat="43.19226662109722" lon="-0.6088807214540625"><ele>211.0</ele><time>2026-04-01T07:50:09Z</time></trkpt><trkpt lat="43.19226193753467" lon="-0.6089958321903811"><ele>210.99999999999997</ele><time>2026-04-01T07:50:11Z</time></trkpt><trkpt lat="43.192284699297865" lon="-0.6090975492841277"><ele>211.0</ele><time>2026-04-01T07:50:14Z</time></trkpt><trkpt lat="43.19215356256695" lon="-0.6090256554834682"><ele>213.20000000000002</ele><time>2026-04-01T07:50:19Z</time></trkpt><trkpt lat="43.1921306373677" lon="-0.6091165344718692"><ele>215.4</ele><time>2026-04-01T07:50:37Z</time></trkpt><trkpt lat="43.19210668626736" lon="-0.6093235040050254"><ele>217.6</ele><time>2026-04-01T07:52:00Z</time></trkpt><trkpt lat="43.19218171791394" lon="-0.6093167285416717"><ele>219.8</ele><time>2026-04-01T07:52:31Z</time></trkpt><trkpt lat="43.192215771554025" lon="-0.6092345680864001"><ele>222.0</ele><time>2026-04-01T07:52:36Z</time></trkpt><trkpt lat="43.19227838641401" lon="-0.6090491846814499"><ele>222.0</ele><time>2026-04-01T07:53:01Z</time></trkpt><trkpt lat="43.1922975060765" lon="-0.6089112318400174"><ele>222.0</ele><time>2026-04-01T07:53:09Z</time></trkpt><trkpt lat="43.19231761325945" lon="-0.6087962397860692"><ele>222.0</ele><time>2026-04-01T07:53:11Z</time></trkpt><trkpt lat="43.19231564868077" lon="-0.6085842139057902"><ele>222.0</ele><time>2026-04-01T07:53:13Z</time></trkpt><trkpt lat="43.19223692976768" lon="-0.6084459892216892"><ele>222.2</ele><time>2026-04-01T07:53:14Z</time></trkpt><trkpt lat="43.1922377692443" lon="-0.6083078673521028"><ele>222.39999999999998</ele><time>2026-04-01T07:53:15Z</time></trkpt><trkpt lat="43.19223861231489" lon="-0.6081691540613037"><ele>222.60000000000002</ele><time>2026-04-01T07:53:16Z</time></trkpt><trkpt lat="43.19223957408041" lon="-0.608028334515439"><ele>222.8</ele><time>2026-04-01T07:53:17Z</time></trkpt><trkpt lat="43.19224064355097" lon="-0.6078878652843113"><ele>223.0</ele><time>2026-04-01T07:53:18Z</time></trkpt><trkpt lat="43.19224175755763" lon="-0.6077415460693902"><ele>223.0</ele><time>2026-04-01T07:53:19Z</time></trkpt><trkpt lat="43.19224194838666" lon="-0.6075929829273604"><ele>223.0</ele><time>2026-04-01T07:53:20Z</time></trkpt><trkpt lat="43.19224471908118" lon="-0.6074443376278059"><ele>223.0</ele><time>2026-04-01T07:53:21Z</time></trkpt><trkpt lat="43.19225815658097" lon="-0.6073069747023161"><ele>223.0</ele><time>2026-04-01T07:53:22Z</time></trkpt><trkpt lat="43.19228659964176" lon="-0.6071761704571608"><ele>223.0</ele><time>2026-04-01T07:53:23Z</time></trkpt><trkpt lat="43.192324081164735" lon="-0.6070568939359192"><ele>222.66666666666666</ele><time>2026-04-01T07:53:24Z</time></trkpt><trkpt lat="43.19235929155321" lon="-0.6069433645545668"><ele>222.33333333333331</ele><time>2026-04-01T07:53:25Z</time></trkpt><trkpt lat="43.19238696658923" lon="-0.6068319226026906"><ele>222.0</ele><time>2026-04-01T07:53:26Z</time></trkpt><trkpt lat="43.19240341580878" lon="-0.606724253393282"><ele>221.66666666666669</ele><time>2026-04-01T07:53:27Z</time></trkpt><trkpt lat="43.19241949234217" lon="-0.606605581493613"><ele>221.33333333333334</ele><time>2026-04-01T07:53:29Z</time></trkpt><trkpt lat="43.19243375937661" lon="-0.6064852321198542"><ele>221.0</ele><time>2026-04-01T07:54:24Z</time></trkpt><trkpt lat="43.19245431679646" lon="-0.6063407419350457"><ele>221.00000000000003</ele><time>2026-04-01T07:54:26Z</time></trkpt><trkpt lat="43.19249891372065" lon="-0.6062403439304285"><ele>221.0</ele><time>2026-04-01T07:54:27Z</time></trkpt><trkpt lat="43.19255222512214" lon="-0.6061546937881847"><ele>221.0</ele><time>2026-04-01T07:54:28Z</time></trkpt><trkpt lat="43.192607518171975" lon="-0.6060687382815184"><ele>221.0</ele><time>2026-04-01T07:54:29Z</time></trkpt><trkpt lat="43.19266538077735" lon="-0.6059809832037524"><ele>221.00000000000003</ele><time>2026-04-01T07:54:30Z</time></trkpt><trkpt lat="43.19273135673197" lon="-0.605880520993165"><ele>221.0</ele><time>2026-04-01T07:54:31Z</time></trkpt><trkpt lat="43.1927958632489" lon="-0.6057827349255327"><ele>220.66666666666669</ele><time>2026-04-01T07:54:32Z</time></trkpt><trkpt lat="43.19285839704082" lon="-0.6056890543832305"><ele>220.33333333333334</ele><time>2026-04-01T07:54:33Z</time></trkpt><trkpt lat="43.19291691915261" lon="-0.6055918413141723"><ele>220.0</ele><time>2026-04-01T07:54:34Z</time></trkpt><trkpt lat="43.19295788726844" lon="-0.6054954904230179"><ele>219.66666666666669</ele><time>2026-04-01T07:54:35Z</time></trkpt><trkpt lat="43.19298694762193" lon="-0.6054022951905397"><ele>219.33333333333334</ele><time>2026-04-01T07:54:36Z</time></trkpt><trkpt lat="43.19301840482419" lon="-0.6052807082502267"><ele>219.0</ele><time>2026-04-01T07:54:37Z</time></trkpt><trkpt lat="43.19307139942345" lon="-0.6051264844420928"><ele>220.0</ele><time>2026-04-01T07:54:38Z</time></trkpt><trkpt lat="43.193132722117106" lon="-0.6049944240732966"><ele>220.99999999999997</ele><time>2026-04-01T07:54:39Z</time></trkpt><trkpt lat="43.19318098284286" lon="-0.6048433172976477"><ele>221.99999999999997</ele><time>2026-04-01T07:54:40Z</time></trkpt><trkpt lat="43.19322490964351" lon="-0.6047070692220206"><ele>223.0</ele><time>2026-04-01T07:54:41Z</time></trkpt><trkpt lat="43.19325490238565" lon="-0.6045851879606976"><ele>224.0</ele><time>2026-04-01T07:54:42Z</time></trkpt><trkpt lat="43.19324576641782" lon="-0.6044983579932283"><ele>225.0</ele><time>2026-04-01T07:54:43Z</time></trkpt><trkpt lat="43.19321568883733" lon="-0.6044109197595973"><ele>225.99999999999997</ele><time>2026-04-01T07:54:44Z</time></trkpt><trkpt lat="43.19316059294525" lon="-0.6043243985477418"><ele>226.99999999999997</ele><time>2026-04-01T07:54:45Z</time></trkpt><trkpt lat="43.193066422353354" lon="-0.6042675872759798"><ele>228.0</ele><time>2026-04-01T07:54:46Z</time></trkpt><trkpt lat="43.19297510605822" lon="-0.6041722362350219"><ele>229.0</ele><time>2026-04-01T07:54:47Z</time></trkpt><trkpt lat="43.19286514060874" lon="-0.604057422171534"><ele>229.0</ele><time>2026-04-01T07:54:48Z</time></trkpt><trkpt lat="43.192737732784806" lon="-0.6039242274956905"><ele>229.0</ele><time>2026-04-01T07:54:49Z</time></trkpt><trkpt lat="43.192633522480904" lon="-0.6038058137336856"><ele>229.0</ele><time>2026-04-01T07:54:50Z</time></trkpt><trkpt lat="43.19255064039566" lon="-0.6036865283258548"><ele>229.0</ele><time>2026-04-01T07:54:51Z</time></trkpt><trkpt lat="43.19249028208397" lon="-0.603556360998184"><ele>227.75</ele><time>2026-04-01T07:54:52Z</time></trkpt><trkpt lat="43.19242986483775" lon="-0.6034211674935105"><ele>226.5</ele><time>2026-04-01T07:54:53Z</time></trkpt><trkpt lat="43.19236580806644" lon="-0.6032711660157288"><ele>225.25</ele><time>2026-04-01T07:54:54Z</time></trkpt><trkpt lat="43.1922965594939" lon="-0.6031067096644205"><ele>224.0</ele><time>2026-04-01T07:54:55Z</time></trkpt><trkpt lat="43.192226138272346" lon="-0.6029392132764461"><ele>225.5</ele><time>2026-04-01T07:54:56Z</time></trkpt><trkpt lat="43.19215400362097" lon="-0.602772052690849"><ele>227.0</ele><time>2026-04-01T07:54:57Z</time></trkpt><trkpt lat="43.19208243940512" lon="-0.6026062132894368"><ele>228.5</ele><time>2026-04-01T07:54:58Z</time></trkpt><trkpt lat="43.19200744574765" lon="-0.6024286166956022"><ele>230.0</ele><time>2026-04-01T07:54:59Z</time></trkpt><trkpt lat="43.191968217502755" lon="-0.6022389387577672"><ele>230.0</ele><time>2026-04-01T07:55:00Z</time></trkpt><trkpt lat="43.19189335369387" lon="-0.602064246694516"><ele>230.0</ele><time>2026-04-01T07:55:01Z</time></trkpt><trkpt lat="43.19182071063347" lon="-0.6018944020052763"><ele>230.0</ele><time>2026-04-01T07:55:02Z</time></trkpt><trkpt lat="43.19175328480223" lon="-0.6017270894500562"><ele>230.0</ele><time>2026-04-01T07:55:03Z</time></trkpt><trkpt lat="43.19168072710404" lon="-0.6015598366197792"><ele>231.0</ele><time>2026-04-01T07:55:04Z</time></trkpt><trkpt lat="43.191580450069246" lon="-0.6014208364874587"><ele>232.0</ele><time>2026-04-01T07:55:05Z</time></trkpt><trkpt lat="43.191508633706725" lon="-0.6012517976945134"><ele>233.0</ele><time>2026-04-01T07:55:06Z</time></trkpt><trkpt lat="43.19143297461606" lon="-0.6010737139036214"><ele>234.0</ele><time>2026-04-01T07:55:07Z</time></trkpt><trkpt lat="43.19135646768455" lon="-0.6008936345935103"><ele>234.0</ele><time>2026-04-01T07:55:08Z</time></trkpt><trkpt lat="43.19127957354535" lon="-0.6007120504274591"><ele>234.0</ele><time>2026-04-01T07:55:09Z</time></trkpt><trkpt lat="43.19119924925459" lon="-0.6005204777024832"><ele>234.0</ele><time>2026-04-01T07:55:10Z</time></trkpt><trkpt lat="43.19111568661531" lon="-0.6003211814866897"><ele>238.0</ele><time>2026-04-01T07:55:11Z</time></trkpt><trkpt lat="43.191029321829454" lon="-0.6001177832972726"><ele>242.0</ele><time>2026-04-01T07:55:12Z</time></trkpt><trkpt lat="43.19094451132719" lon="-0.5999197588211096"><ele>246.0</ele><time>2026-04-01T07:55:13Z</time></trkpt><trkpt lat="43.19086326264601" lon="-0.5997307200310085"><ele>246.0</ele><time>2026-04-01T07:55:14Z</time></trkpt><trkpt lat="43.190792927540606" lon="-0.5995203218870314"><ele>246.0</ele><time>2026-04-01T07:55:15Z</time></trkpt><trkpt lat="43.19074186641756" lon="-0.5993018666353758"><ele>246.0</ele><time>2026-04-01T07:55:16Z</time></trkpt><trkpt lat="43.19069153487053" lon="-0.5990809258268605"><ele>241.33333333333331</ele><time>2026-04-01T07:55:17Z</time></trkpt><trkpt lat="43.190639700675554" lon="-0.5988536124228382"><ele>236.66666666666666</ele><time>2026-04-01T07:55:18Z</time></trkpt><trkpt lat="43.19059004283237" lon="-0.5986317336347515"><ele>232.0</ele><time>2026-04-01T07:55:19Z</time></trkpt><trkpt lat="43.19055435540587" lon="-0.5983973498780525"><ele>232.0</ele><time>2026-04-01T07:55:20Z</time></trkpt><trkpt lat="43.190501810040836" lon="-0.5981665899941181"><ele>232.0</ele><time>2026-04-01T07:55:21Z</time></trkpt><trkpt lat="43.1904460471646" lon="-0.5979305941885051"><ele>232.0</ele><time>2026-04-01T07:55:22Z</time></trkpt><trkpt lat="43.190391868143685" lon="-0.5976947292971887"><ele>235.33333333333331</ele><time>2026-04-01T07:55:23Z</time></trkpt><trkpt lat="43.19031920607728" lon="-0.5974557624847782"><ele>238.66666666666669</ele><time>2026-04-01T07:55:24Z</time></trkpt><trkpt lat="43.190275840678616" lon="-0.5972044939763544"><ele>242.0</ele><time>2026-04-01T07:55:25Z</time></trkpt><trkpt lat="43.1901983292647" lon="-0.5969607582054187"><ele>246.33333333333334</ele><time>2026-04-01T07:55:26Z</time></trkpt><trkpt lat="43.190140190537264" lon="-0.5967145825514467"><ele>250.66666666666669</ele><time>2026-04-01T07:55:27Z</time></trkpt><trkpt lat="43.190084514286944" lon="-0.5964696669706997"><ele>255.0</ele><time>2026-04-01T07:55:28Z</time></trkpt><trkpt lat="43.1900332813584" lon="-0.5962300163731528"><ele>257.6666666666667</ele><time>2026-04-01T07:55:29Z</time></trkpt><trkpt lat="43.18998410784253" lon="-0.5959519141525723"><ele>260.33333333333337</ele><time>2026-04-01T07:55:30Z</time></trkpt><trkpt lat="43.18992750515275" lon="-0.595695831024433"><ele>263.0</ele><time>2026-04-01T07:55:31Z</time></trkpt><trkpt lat="43.18986028274371" lon="-0.5954402669629413"><ele>261.0</ele><time>2026-04-01T07:55:32Z</time></trkpt><trkpt lat="43.18979216747132" lon="-0.5951793670459627"><ele>259.0</ele><time>2026-04-01T07:55:33Z</time></trkpt><trkpt lat="43.18972506446661" lon="-0.5949197268639616"><ele>257.0</ele><time>2026-04-01T07:55:34Z</time></trkpt><trkpt lat="43.189657717265874" lon="-0.5946510849555019"><ele>258.6666666666667</ele><time>2026-04-01T07:55:35Z</time></trkpt><trkpt lat="43.18958934010587" lon="-0.5943793422326857"><ele>260.3333333333333</ele><time>2026-04-01T07:55:36Z</time></trkpt><trkpt lat="43.18952218900056" lon="-0.5941031057952166"><ele>262.0</ele><time>2026-04-01T07:55:37Z</time></trkpt><trkpt lat="43.18945622910916" lon="-0.593843980158662"><ele>264.0</ele><time>2026-04-01T07:55:38Z</time></trkpt><trkpt lat="43.189387227395756" lon="-0.5935756886532833"><ele>266.0</ele><time>2026-04-01T07:55:39Z</time></trkpt><trkpt lat="43.1893196671301" lon="-0.5933055946662741"><ele>268.0</ele><time>2026-04-01T07:55:40Z</time></trkpt><trkpt lat="43.18925453505338" lon="-0.5930375435494004"><ele>269.3333333333333</ele><time>2026-04-01T07:55:41Z</time></trkpt><trkpt lat="43.18918954830612" lon="-0.592767456230812"><ele>270.6666666666667</ele><time>2026-04-01T07:55:42Z</time></trkpt><trkpt lat="43.18912553835884" lon="-0.5925035812980624"><ele>272.0</ele><time>2026-04-01T07:55:43Z</time></trkpt><trkpt lat="43.18905440395499" lon="-0.5922294061556308"><ele>268.33333333333337</ele><time>2026-04-01T07:55:44Z</time></trkpt><trkpt lat="43.18897999931478" lon="-0.591962191763732"><ele>264.6666666666667</ele><time>2026-04-01T07:55:45Z</time></trkpt><trkpt lat="43.18890008954428" lon="-0.591698009879205"><ele>261.0</ele><time>2026-04-01T07:55:46Z</time></trkpt><trkpt lat="43.18881298186876" lon="-0.5914347073848859"><ele>262.6666666666667</ele><time>2026-04-01T07:55:47Z</time></trkpt><trkpt lat="43.18872097033791" lon="-0.5911705065788673"><ele>264.33333333333337</ele><time>2026-04-01T07:55:48Z</time></trkpt><trkpt lat="43.18862168059649" lon="-0.5909018104059568"><ele>266.0</ele><time>2026-04-01T07:55:49Z</time></trkpt><trkpt lat="43.18851788431056" lon="-0.5906278254164897"><ele>266.0</ele><time>2026-04-01T07:55:50Z</time></trkpt><trkpt lat="43.18840926040415" lon="-0.5903485933823162"><ele>266.0</ele><time>2026-04-01T07:55:51Z</time></trkpt><trkpt lat="43.188343224702585" lon="-0.5901197154055511"><ele>266.0</ele><time>2026-04-01T07:55:52Z</time></trkpt><trkpt lat="43.18824656396571" lon="-0.5898503647180063"><ele>268.0</ele><time>2026-04-01T07:55:53Z</time></trkpt><trkpt lat="43.18815077298977" lon="-0.5895845341828074"><ele>270.0</ele><time>2026-04-01T07:55:54Z</time></trkpt><trkpt lat="43.18805297960557" lon="-0.5893245483119365"><ele>272.0</ele><time>2026-04-01T07:55:55Z</time></trkpt><trkpt lat="43.187962295848635" lon="-0.5890611230958999"><ele>272.0</ele><time>2026-04-01T07:55:56Z</time></trkpt><trkpt lat="43.18787565661605" lon="-0.5888083784442744"><ele>272.0</ele><time>2026-04-01T07:55:57Z</time></trkpt><trkpt lat="43.187789932548874" lon="-0.5885688692620349"><ele>272.0</ele><time>2026-04-01T07:55:58Z</time></trkpt><trkpt lat="43.18770738864526" lon="-0.5883362657249805"><ele>271.6666666666667</ele><time>2026-04-01T07:55:59Z</time></trkpt><trkpt lat="43.1876289662193" lon="-0.5881191230129982"><ele>271.3333333333333</ele><time>2026-04-01T07:56:00Z</time></trkpt><trkpt lat="43.18754969131177" lon="-0.5879241676158338"><ele>271.0</ele><time>2026-04-01T07:56:01Z</time></trkpt><trkpt lat="43.18746599781264" lon="-0.5877514203055668"><ele>271.75</ele><time>2026-04-01T07:56:02Z</time></trkpt><trkpt lat="43.187381462083124" lon="-0.5876077609092812"><ele>272.5</ele><time>2026-04-01T07:56:03Z</time></trkpt><trkpt lat="43.18729636758325" lon="-0.5875003874621191"><ele>273.25</ele><time>2026-04-01T07:56:04Z</time></trkpt><trkpt lat="43.18720999689188" lon="-0.5874163882877159"><ele>274.0</ele><time>2026-04-01T07:56:05Z</time></trkpt><trkpt lat="43.1871232936857" lon="-0.5873573383909862"><ele>274.0</ele><time>2026-04-01T07:56:06Z</time></trkpt><trkpt lat="43.18704113179137" lon="-0.5873144131833415"><ele>274.0</ele><time>2026-04-01T07:56:07Z</time></trkpt><trkpt lat="43.18697921740799" lon="-0.5872544791503387"><ele>274.0</ele><time>2026-04-01T07:56:08Z</time></trkpt><trkpt lat="43.18693833476354" lon="-0.5871751671227616"><ele>274.0</ele><time>2026-04-01T07:56:09Z</time></trkpt><trkpt lat="43.186925937870484" lon="-0.5870696510536604"><ele>274.0</ele><time>2026-04-01T07:56:10Z</time></trkpt><trkpt lat="43.18694122204717" lon="-0.5869498062314613"><ele>274.0</ele><time>2026-04-01T07:56:11Z</time></trkpt><trkpt lat="43.18696820754336" lon="-0.5867950808105734"><ele>274.0</ele><time>2026-04-01T07:56:12Z</time></trkpt><trkpt lat="43.18700155405235" lon="-0.5866005507144314"><ele>274.0</ele><time>2026-04-01T07:56:13Z</time></trkpt><trkpt lat="43.186963503017964" lon="-0.5863609456100206"><ele>274.0</ele><time>2026-04-01T07:56:14Z</time></trkpt><trkpt lat="43.18691696941345" lon="-0.5861645449144107"><ele>274.66666666666663</ele><time>2026-04-01T07:56:15Z</time></trkpt><trkpt lat="43.186852527066975" lon="-0.5859598875059288"><ele>275.3333333333333</ele><time>2026-04-01T07:56:16Z</time></trkpt><trkpt lat="43.18677663754817" lon="-0.5857310393793942"><ele>276.0</ele><time>2026-04-01T07:56:17Z</time></trkpt><trkpt lat="43.18668699561681" lon="-0.5854800263338883"><ele>276.3333333333333</ele><time>2026-04-01T07:56:18Z</time></trkpt><trkpt lat="43.186597584638555" lon="-0.5852283713671994"><ele>276.66666666666663</ele><time>2026-04-01T07:56:19Z</time></trkpt><trkpt lat="43.18651572999195" lon="-0.5849760055350401"><ele>277.0</ele><time>2026-04-01T07:56:20Z</time></trkpt><trkpt lat="43.18642918741531" lon="-0.5847201861488771"><ele>277.66666666666663</ele><time>2026-04-01T07:56:21Z</time></trkpt><trkpt lat="43.18633105865096" lon="-0.5844452913095504"><ele>278.3333333333333</ele><time>2026-04-01T07:56:22Z</time></trkpt><trkpt lat="43.1862385769591" lon="-0.5841827540288858"><ele>279.0</ele><time>2026-04-01T07:56:23Z</time></trkpt><trkpt lat="43.186153427519855" lon="-0.5839473983263573"><ele>279.0</ele><time>2026-04-01T07:56:24Z</time></trkpt><trkpt lat="43.186071498612634" lon="-0.5837150639752667"><ele>279.0</ele><time>2026-04-01T07:56:25Z</time></trkpt><trkpt lat="43.18598030700532" lon="-0.5834564056725043"><ele>279.0</ele><time>2026-04-01T07:56:26Z</time></trkpt><trkpt lat="43.185883751604905" lon="-0.5831913263836487"><ele>279.6666666666667</ele><time>2026-04-01T07:56:27Z</time></trkpt><trkpt lat="43.185780560652894" lon="-0.5829192792846171"><ele>280.33333333333337</ele><time>2026-04-01T07:56:28Z</time></trkpt><trkpt lat="43.18567746100248" lon="-0.5826488290746044"><ele>281.0</ele><time>2026-04-01T07:56:29Z</time></trkpt><trkpt lat="43.185577320291785" lon="-0.5823794093714589"><ele>281.0</ele><time>2026-04-01T07:56:30Z</time></trkpt><trkpt lat="43.18547863185865" lon="-0.5821088337603362"><ele>281.0</ele><time>2026-04-01T07:56:31Z</time></trkpt><trkpt lat="43.18538324442307" lon="-0.5818362481600002"><ele>281.0</ele><time>2026-04-01T07:56:32Z</time></trkpt><trkpt lat="43.185290026407245" lon="-0.5815688218304803"><ele>281.0</ele><time>2026-04-01T07:56:33Z</time></trkpt><trkpt lat="43.185194795829936" lon="-0.581302738472696"><ele>281.0</ele><time>2026-04-01T07:56:34Z</time></trkpt><trkpt lat="43.18509830584683" lon="-0.5810352090550389"><ele>281.0</ele><time>2026-04-01T07:56:35Z</time></trkpt><trkpt lat="43.18500320940111" lon="-0.5807702571820628"><ele>281.0</ele><time>2026-04-01T07:56:36Z</time></trkpt><trkpt lat="43.18490691195969" lon="-0.5804982440157584"><ele>281.0</ele><time>2026-04-01T07:56:37Z</time></trkpt><trkpt lat="43.184810848998694" lon="-0.5802351235777853"><ele>281.0</ele><time>2026-04-01T07:56:38Z</time></trkpt><trkpt lat="43.18471657099085" lon="-0.5799682621265988"><ele>282.0</ele><time>2026-04-01T07:56:39Z</time></trkpt><trkpt lat="43.1846209681726" lon="-0.5796983170137212"><ele>283.0</ele><time>2026-04-01T07:56:40Z</time></trkpt><trkpt lat="43.18452411214609" lon="-0.5794245646248269"><ele>284.0</ele><time>2026-04-01T07:56:41Z</time></trkpt><trkpt lat="43.184424879032775" lon="-0.5791479964721867"><ele>284.0</ele><time>2026-04-01T07:56:42Z</time></trkpt><trkpt lat="43.184324755585905" lon="-0.5788708485767257"><ele>284.0</ele><time>2026-04-01T07:56:43Z</time></trkpt><trkpt lat="43.18422912555608" lon="-0.5785996364987834"><ele>284.0</ele><time>2026-04-01T07:56:44Z</time></trkpt><trkpt lat="43.184134318268384" lon="-0.5783333287763021"><ele>283.6666666666667</ele><time>2026-04-01T07:56:45Z</time></trkpt><trkpt lat="43.184040159589884" lon="-0.5780702582864491"><ele>283.3333333333333</ele><time>2026-04-01T07:56:46Z</time></trkpt><trkpt lat="43.183944573191646" lon="-0.5778005874877793"><ele>283.0</ele><time>2026-04-01T07:56:47Z</time></trkpt><trkpt lat="43.18384654215989" lon="-0.577526309176794"><ele>282.5</ele><time>2026-04-01T07:56:48Z</time></trkpt><trkpt lat="43.18374654651543" lon="-0.5772435010134294"><ele>282.0</ele><time>2026-04-01T07:56:49Z</time></trkpt><trkpt lat="43.18364668154022" lon="-0.5769571464648476"><ele>283.0</ele><time>2026-04-01T07:56:50Z</time></trkpt><trkpt lat="43.18354785099302" lon="-0.5766687853754594"><ele>284.0</ele><time>2026-04-01T07:56:51Z</time></trkpt><trkpt lat="43.183450295847656" lon="-0.5763860500990321"><ele>284.33333333333337</ele><time>2026-04-01T07:56:52Z</time></trkpt><trkpt lat="43.18335316647592" lon="-0.5761115882676635"><ele>284.6666666666667</ele><time>2026-04-01T07:56:53Z</time></trkpt><trkpt lat="43.18325827950002" lon="-0.5758442299274088"><ele>285.0</ele><time>2026-04-01T07:56:54Z</time></trkpt><trkpt lat="43.183165579972375" lon="-0.5755857730618231"><ele>285.3333333333333</ele><time>2026-04-01T07:56:55Z</time></trkpt><trkpt lat="43.183081044200065" lon="-0.5753471200795944"><ele>285.66666666666663</ele><time>2026-04-01T07:56:56Z</time></trkpt><trkpt lat="43.182997743754754" lon="-0.5751140199143753"><ele>286.0</ele><time>2026-04-01T07:56:57Z</time></trkpt><trkpt lat="43.18291456553211" lon="-0.5748812933523567"><ele>286.0</ele><time>2026-04-01T07:56:58Z</time></trkpt><trkpt lat="43.18282860144093" lon="-0.574638619425878"><ele>286.0</ele><time>2026-04-01T07:56:59Z</time></trkpt><trkpt lat="43.182743663694076" lon="-0.574395081296448"><ele>286.0</ele><time>2026-04-01T07:57:00Z</time></trkpt><trkpt lat="43.182648094167426" lon="-0.5741240870685254"><ele>286.0</ele><time>2026-04-01T07:57:01Z</time></trkpt><trkpt lat="43.18255436671803" lon="-0.5738613497186836"><ele>286.0</ele><time>2026-04-01T07:57:02Z</time></trkpt><trkpt lat="43.18245839633671" lon="-0.573606370278002"><ele>286.0</ele><time>2026-04-01T07:57:03Z</time></trkpt><trkpt lat="43.18235032390561" lon="-0.5733441994443251"><ele>286.0</ele><time>2026-04-01T07:57:04Z</time></trkpt><trkpt lat="43.182240138823516" lon="-0.5730755467392226"><ele>286.0</ele><time>2026-04-01T07:57:05Z</time></trkpt><trkpt lat="43.182131147558096" lon="-0.5728112377598922"><ele>286.0</ele><time>2026-04-01T07:57:06Z</time></trkpt><trkpt lat="43.182023193121516" lon="-0.5725429038793715"><ele>286.66666666666663</ele><time>2026-04-01T07:57:07Z</time></trkpt><trkpt lat="43.18191622559875" lon="-0.5722812693923193"><ele>287.3333333333333</ele><time>2026-04-01T07:57:08Z</time></trkpt><trkpt lat="43.181812204060854" lon="-0.5720152916154533"><ele>288.0</ele><time>2026-04-01T07:57:09Z</time></trkpt><trkpt lat="43.18171122907202" lon="-0.5717454090184604"><ele>288.0</ele><time>2026-04-01T07:57:10Z</time></trkpt><trkpt lat="43.18161452778782" lon="-0.5714792774687845"><ele>288.0</ele><time>2026-04-01T07:57:11Z</time></trkpt><trkpt lat="43.18152003758974" lon="-0.5712128841075479"><ele>288.0</ele><time>2026-04-01T07:57:12Z</time></trkpt><trkpt lat="43.1814266149457" lon="-0.5709458975821354"><ele>288.0</ele><time>2026-04-01T07:57:13Z</time></trkpt><trkpt lat="43.18133576456612" lon="-0.5706792943967528"><ele>288.0</ele><time>2026-04-01T07:57:14Z</time></trkpt><trkpt lat="43.181244432157506" lon="-0.5704100730582748"><ele>288.0</ele><time>2026-04-01T07:57:15Z</time></trkpt><trkpt lat="43.18114919186592" lon="-0.5701380538220844"><ele>288.6666666666667</ele><time>2026-04-01T07:57:16Z</time></trkpt><trkpt lat="43.181051746870416" lon="-0.5698620638562142"><ele>289.33333333333337</ele><time>2026-04-01T07:57:17Z</time></trkpt><trkpt lat="43.18095718409038" lon="-0.5695887927091932"><ele>290.0</ele><time>2026-04-01T07:57:18Z</time></trkpt><trkpt lat="43.1808605841893" lon="-0.5693129563979897"><ele>290.0</ele><time>2026-04-01T07:57:19Z</time></trkpt><trkpt lat="43.18076852310401" lon="-0.5690370332777615"><ele>290.0</ele><time>2026-04-01T07:57:20Z</time></trkpt><trkpt lat="43.180676972728385" lon="-0.5687698399069218"><ele>290.0</ele><time>2026-04-01T07:57:21Z</time></trkpt><trkpt lat="43.180584125301586" lon="-0.5684897461250502"><ele>289.6666666666667</ele><time>2026-04-01T07:57:22Z</time></trkpt><trkpt lat="43.18049030174261" lon="-0.5682138944867708"><ele>289.3333333333333</ele><time>2026-04-01T07:57:23Z</time></trkpt><trkpt lat="43.18039563283728" lon="-0.5679376945405012"><ele>289.0</ele><time>2026-04-01T07:57:24Z</time></trkpt><trkpt lat="43.180301823014396" lon="-0.5676588540720783"><ele>290.0</ele><time>2026-04-01T07:57:25Z</time></trkpt><trkpt lat="43.1802058342986" lon="-0.5673743251179831"><ele>291.0</ele><time>2026-04-01T07:57:26Z</time></trkpt><trkpt lat="43.180109468507645" lon="-0.5670979368211699"><ele>292.0</ele><time>2026-04-01T07:57:27Z</time></trkpt><trkpt lat="43.18001118205738" lon="-0.5668149432542893"><ele>293.0</ele><time>2026-04-01T07:57:28Z</time></trkpt><trkpt lat="43.179912556282005" lon="-0.5665406254602661"><ele>292.5</ele><time>2026-04-01T07:57:29Z</time></trkpt><trkpt lat="43.17981229626414" lon="-0.5662506797089782"><ele>292.0</ele><time>2026-04-01T07:57:30Z</time></trkpt><trkpt lat="43.1797129801125" lon="-0.5659655671929318"><ele>292.0</ele><time>2026-04-01T07:57:31Z</time></trkpt><trkpt lat="43.17961391614549" lon="-0.5656804054639484"><ele>292.0</ele><time>2026-04-01T07:57:32Z</time></trkpt><trkpt lat="43.17951304794245" lon="-0.5654001760377187"><ele>291.66666666666663</ele><time>2026-04-01T07:57:33Z</time></trkpt><trkpt lat="43.1794196797044" lon="-0.565132029866502"><ele>291.3333333333333</ele><time>2026-04-01T07:57:34Z</time></trkpt><trkpt lat="43.1793339035252" lon="-0.564883415448747"><ele>291.0</ele><time>2026-04-01T07:57:35Z</time></trkpt><trkpt lat="43.179242672103776" lon="-0.5646297142457847"><ele>291.0</ele><time>2026-04-01T07:57:36Z</time></trkpt><trkpt lat="43.17914868298213" lon="-0.5643672457095037"><ele>291.0</ele><time>2026-04-01T07:57:37Z</time></trkpt><trkpt lat="43.17905579571248" lon="-0.5641098549704223"><ele>291.0</ele><time>2026-04-01T07:57:38Z</time></trkpt><trkpt lat="43.178965204450904" lon="-0.5638524874336067"><ele>291.0</ele><time>2026-04-01T07:57:39Z</time></trkpt><trkpt lat="43.17887464392849" lon="-0.5635996112489565"><ele>291.0</ele><time>2026-04-01T07:57:40Z</time></trkpt><trkpt lat="43.17878701539916" lon="-0.563344754479413"><ele>291.0</ele><time>2026-04-01T07:57:41Z</time></trkpt><trkpt lat="43.17871991709192" lon="-0.563077830626662"><ele>291.3333333333333</ele><time>2026-04-01T07:57:42Z</time></trkpt><trkpt lat="43.178675479164895" lon="-0.5628008128832259"><ele>291.66666666666663</ele><time>2026-04-01T07:57:43Z</time></trkpt><trkpt lat="43.178659331576846" lon="-0.5625177489907249"><ele>292.0</ele><time>2026-04-01T07:57:44Z</time></trkpt><trkpt lat="43.178654910152275" lon="-0.5622333476666381"><ele>291.66666666666663</ele><time>2026-04-01T07:57:45Z</time></trkpt><trkpt lat="43.178645335546534" lon="-0.5619541492213032"><ele>291.3333333333333</ele><time>2026-04-01T07:57:46Z</time></trkpt><trkpt lat="43.17861371148208" lon="-0.561687431429451"><ele>291.0</ele><time>2026-04-01T07:57:47Z</time></trkpt><trkpt lat="43.17856135709604" lon="-0.5614108777025061"><ele>289.5</ele><time>2026-04-01T07:57:48Z</time></trkpt><trkpt lat="43.178495949261176" lon="-0.561112926453743"><ele>288.0</ele><time>2026-04-01T07:57:49Z</time></trkpt><trkpt lat="43.178421506520806" lon="-0.5608093316133467"><ele>288.0</ele><time>2026-04-01T07:57:50Z</time></trkpt><trkpt lat="43.178343708868546" lon="-0.560515051055699"><ele>288.0</ele><time>2026-04-01T07:57:51Z</time></trkpt><trkpt lat="43.17826589222475" lon="-0.5602304444530631"><ele>289.0</ele><time>2026-04-01T07:57:52Z</time></trkpt><trkpt lat="43.17819077049847" lon="-0.5599543461871542"><ele>290.0</ele><time>2026-04-01T07:57:53Z</time></trkpt><trkpt lat="43.17811657943998" lon="-0.5596748941552665"><ele>291.0</ele><time>2026-04-01T07:57:54Z</time></trkpt><trkpt lat="43.17803717940273" lon="-0.5593936193375922"><ele>291.0</ele><time>2026-04-01T07:57:55Z</time></trkpt><trkpt lat="43.17796060734435" lon="-0.5591031437286"><ele>291.0</ele><time>2026-04-01T07:57:56Z</time></trkpt><trkpt lat="43.177884808729836" lon="-0.5588083795571732"><ele>287.5</ele><time>2026-04-01T07:57:57Z</time></trkpt><trkpt lat="43.17781264751204" lon="-0.5585171526249999"><ele>284.0</ele><time>2026-04-01T07:57:58Z</time></trkpt><trkpt lat="43.1777362891588" lon="-0.5582144623196741"><ele>284.0</ele><time>2026-04-01T07:57:59Z</time></trkpt><trkpt lat="43.17765884126611" lon="-0.5579149481826995"><ele>284.0</ele><time>2026-04-01T07:58:00Z</time></trkpt><trkpt lat="43.17757766004459" lon="-0.5576125654411234"><ele>280.5</ele><time>2026-04-01T07:58:01Z</time></trkpt><trkpt lat="43.177496151752834" lon="-0.5573196818063868"><ele>277.0</ele><time>2026-04-01T07:58:02Z</time></trkpt><trkpt lat="43.177410311816345" lon="-0.557024550780496"><ele>277.5</ele><time>2026-04-01T07:58:03Z</time></trkpt><trkpt lat="43.1773224023" lon="-0.5567319654754614"><ele>278.0</ele><time>2026-04-01T07:58:04Z</time></trkpt><trkpt lat="43.17723578538427" lon="-0.5564404994568702"><ele>276.0</ele><time>2026-04-01T07:58:05Z</time></trkpt><trkpt lat="43.177154286212165" lon="-0.5561519980156914"><ele>274.0</ele><time>2026-04-01T07:58:06Z</time></trkpt><trkpt lat="43.177078818086926" lon="-0.5558555346756408"><ele>274.0</ele><time>2026-04-01T07:58:07Z</time></trkpt><trkpt lat="43.17700400271293" lon="-0.5555599662647823"><ele>274.0</ele><time>2026-04-01T07:58:08Z</time></trkpt><trkpt lat="43.176928030294384" lon="-0.5552598032434489"><ele>274.5</ele><time>2026-04-01T07:58:09Z</time></trkpt><trkpt lat="43.17684980773251" lon="-0.5549589900888839"><ele>275.0</ele><time>2026-04-01T07:58:10Z</time></trkpt><trkpt lat="43.17677174310766" lon="-0.5546567154422619"><ele>274.0</ele><time>2026-04-01T07:58:11Z</time></trkpt><trkpt lat="43.17669325333585" lon="-0.554356823995761"><ele>273.0</ele><time>2026-04-01T07:58:12Z</time></trkpt><trkpt lat="43.176614345568744" lon="-0.5540553371500957"><ele>273.0</ele><time>2026-04-01T07:58:13Z</time></trkpt><trkpt lat="43.1765345725972" lon="-0.5537536577314945"><ele>273.0</ele><time>2026-04-01T07:58:14Z</time></trkpt><trkpt lat="43.17645340066528" lon="-0.5534514434082033"><ele>275.0</ele><time>2026-04-01T07:58:15Z</time></trkpt><trkpt lat="43.176371806620764" lon="-0.5531515182100121"><ele>277.0</ele><time>2026-04-01T07:58:16Z</time></trkpt><trkpt lat="43.176290998288415" lon="-0.5528483325852772"><ele>277.0</ele><time>2026-04-01T07:58:17Z</time></trkpt><trkpt lat="43.176211100871775" lon="-0.552548604403217"><ele>277.0</ele><time>2026-04-01T07:58:18Z</time></trkpt><trkpt lat="43.176131329590376" lon="-0.5522493944665695"><ele>277.0</ele><time>2026-04-01T07:58:19Z</time></trkpt><trkpt lat="43.17605009315258" lon="-0.5519501306746001"><ele>277.0</ele><time>2026-04-01T07:58:20Z</time></trkpt><trkpt lat="43.17596843212775" lon="-0.5516507979776202"><ele>277.0</ele><time>2026-04-01T07:58:21Z</time></trkpt><trkpt lat="43.17588420143326" lon="-0.5513519349481535"><ele>277.0</ele><time>2026-04-01T07:58:22Z</time></trkpt><trkpt lat="43.17580037190693" lon="-0.5510555703138065"><ele>277.5</ele><time>2026-04-01T07:58:23Z</time></trkpt><trkpt lat="43.17571683605463" lon="-0.5507586031835066"><ele>278.0</ele><time>2026-04-01T07:58:24Z</time></trkpt><trkpt lat="43.17563268383095" lon="-0.5504649469123132"><ele>279.0</ele><time>2026-04-01T07:58:25Z</time></trkpt><trkpt lat="43.17554971525686" lon="-0.5501724502708887"><ele>280.0</ele><time>2026-04-01T07:58:26Z</time></trkpt><trkpt lat="43.17546480273218" lon="-0.5498861331207253"><ele>280.0</ele><time>2026-04-01T07:58:27Z</time></trkpt><trkpt lat="43.17537847856174" lon="-0.5495948238543024"><ele>280.0</ele><time>2026-04-01T07:58:28Z</time></trkpt><trkpt lat="43.17529170988899" lon="-0.5493089125064076"><ele>280.0</ele><time>2026-04-01T07:58:29Z</time></trkpt><trkpt lat="43.175208114843294" lon="-0.5490195321594843"><ele>280.0</ele><time>2026-04-01T07:58:30Z</time></trkpt><trkpt lat="43.175127213227576" lon="-0.5487378031317801"><ele>280.0</ele><time>2026-04-01T07:58:31Z</time></trkpt><trkpt lat="43.175048960261556" lon="-0.5484510470117209"><ele>280.0</ele><time>2026-04-01T07:58:32Z</time></trkpt><trkpt lat="43.174973074197446" lon="-0.5481660689872189"><ele>280.0</ele><time>2026-04-01T07:58:33Z</time></trkpt><trkpt lat="43.17489627714691" lon="-0.5478818937538096"><ele>280.0</ele><time>2026-04-01T07:58:34Z</time></trkpt><trkpt lat="43.17482055526199" lon="-0.5475958042448063"><ele>280.3333333333333</ele><time>2026-04-01T07:58:35Z</time></trkpt><trkpt lat="43.174746434144225" lon="-0.5473167432940171"><ele>280.6666666666667</ele><time>2026-04-01T07:58:36Z</time></trkpt><trkpt lat="43.17467495973147" lon="-0.5470396638126827"><ele>281.0</ele><time>2026-04-01T07:58:37Z</time></trkpt><trkpt lat="43.17460666731314" lon="-0.5467633558509544"><ele>281.0</ele><time>2026-04-01T07:58:38Z</time></trkpt><trkpt lat="43.17453882234963" lon="-0.5464917215263557"><ele>281.0</ele><time>2026-04-01T07:58:39Z</time></trkpt><trkpt lat="43.17447400825477" lon="-0.5462371030655669"><ele>281.0</ele><time>2026-04-01T07:58:40Z</time></trkpt><trkpt lat="43.174408318391535" lon="-0.5459957239346651"><ele>281.0</ele><time>2026-04-01T07:58:41Z</time></trkpt><trkpt lat="43.174345355851024" lon="-0.5457622264755517"><ele>281.0</ele><time>2026-04-01T07:58:42Z</time></trkpt><trkpt lat="43.174280110516214" lon="-0.5455293789630553"><ele>281.0</ele><time>2026-04-01T07:58:43Z</time></trkpt><trkpt lat="43.17421478854594" lon="-0.5452957686279205"><ele>281.0</ele><time>2026-04-01T07:58:44Z</time></trkpt><trkpt lat="43.17414730884537" lon="-0.5450470975311865"><ele>281.0</ele><time>2026-04-01T07:58:45Z</time></trkpt><trkpt lat="43.17407529429692" lon="-0.5447749608527047"><ele>281.0</ele><time>2026-04-01T07:58:46Z</time></trkpt><trkpt lat="43.17400737283404" lon="-0.5445126603588548"><ele>281.0</ele><time>2026-04-01T07:58:47Z</time></trkpt><trkpt lat="43.17393825396576" lon="-0.5442586804668902"><ele>281.0</ele><time>2026-04-01T07:58:48Z</time></trkpt><trkpt lat="43.1738658812609" lon="-0.543964252038583"><ele>281.0</ele><time>2026-04-01T07:58:49Z</time></trkpt><trkpt lat="43.17379110866266" lon="-0.5436683820404321"><ele>281.33333333333337</ele><time>2026-04-01T07:58:50Z</time></trkpt><trkpt lat="43.17371749264535" lon="-0.543399310265891"><ele>281.6666666666667</ele><time>2026-04-01T07:58:51Z</time></trkpt><trkpt lat="43.173653605504875" lon="-0.5431355263761899"><ele>282.0</ele><time>2026-04-01T07:58:52Z</time></trkpt><trkpt lat="43.17360659954888" lon="-0.5428861992098617"><ele>282.3333333333333</ele><time>2026-04-01T07:58:53Z</time></trkpt><trkpt lat="43.173572656433045" lon="-0.5426406192596814"><ele>282.66666666666663</ele><time>2026-04-01T07:58:54Z</time></trkpt><trkpt lat="43.173553326867264" lon="-0.5423979261950715"><ele>283.0</ele><time>2026-04-01T07:58:55Z</time></trkpt><trkpt lat="43.17354365061741" lon="-0.5421429551651511"><ele>283.3333333333333</ele><time>2026-04-01T07:58:56Z</time></trkpt><trkpt lat="43.17354549864747" lon="-0.5418956737633664"><ele>283.6666666666667</ele><time>2026-04-01T07:58:57Z</time></trkpt><trkpt lat="43.17356060073135" lon="-0.5416443644427353"><ele>284.0</ele><time>2026-04-01T07:58:58Z</time></trkpt><trkpt lat="43.173586250177316" lon="-0.5413868152607639"><ele>284.0</ele><time>2026-04-01T07:58:59Z</time></trkpt><trkpt lat="43.17362638923234" lon="-0.5411382147482422"><ele>284.0</ele><time>2026-04-01T07:59:00Z</time></trkpt><trkpt lat="43.173664304361" lon="-0.5408611780101991"><ele>284.0</ele><time>2026-04-01T07:59:01Z</time></trkpt><trkpt lat="43.173728842558894" lon="-0.5405660836799716"><ele>283.6666666666667</ele><time>2026-04-01T07:59:02Z</time></trkpt><trkpt lat="43.17376381262576" lon="-0.5402758697835705"><ele>283.3333333333333</ele><time>2026-04-01T07:59:03Z</time></trkpt><trkpt lat="43.173802860577084" lon="-0.5399880777701622"><ele>283.0</ele><time>2026-04-01T07:59:04Z</time></trkpt><trkpt lat="43.1738439287458" lon="-0.5396928329147079"><ele>283.0</ele><time>2026-04-01T07:59:05Z</time></trkpt><trkpt lat="43.17388468010067" lon="-0.5394004176383956"><ele>283.0</ele><time>2026-04-01T07:59:06Z</time></trkpt><trkpt lat="43.17392270737631" lon="-0.5391190777541355"><ele>283.0</ele><time>2026-04-01T07:59:07Z</time></trkpt><trkpt lat="43.17394892647423" lon="-0.5388483792422243"><ele>283.0</ele><time>2026-04-01T07:59:08Z</time></trkpt><trkpt lat="43.17396028255904" lon="-0.5385801131512651"><ele>283.0</ele><time>2026-04-01T07:59:09Z</time></trkpt><trkpt lat="43.173950078437734" lon="-0.5383131850773044"><ele>283.0</ele><time>2026-04-01T07:59:10Z</time></trkpt><trkpt lat="43.17392050540598" lon="-0.5380440040902997"><ele>283.3333333333333</ele><time>2026-04-01T07:59:11Z</time></trkpt><trkpt lat="43.17386937129235" lon="-0.537778347910527"><ele>283.6666666666667</ele><time>2026-04-01T07:59:12Z</time></trkpt><trkpt lat="43.173800989058435" lon="-0.5375118786212243"><ele>284.0</ele><time>2026-04-01T07:59:13Z</time></trkpt><trkpt lat="43.17371874114413" lon="-0.537263976597271"><ele>284.0</ele><time>2026-04-01T07:59:14Z</time></trkpt><trkpt lat="43.17363021273874" lon="-0.5370303812572813"><ele>284.0</ele><time>2026-04-01T07:59:15Z</time></trkpt><trkpt lat="43.17355286102134" lon="-0.5367938285898671"><ele>284.0</ele><time>2026-04-01T07:59:16Z</time></trkpt><trkpt lat="43.17343966878856" lon="-0.5365872656878417"><ele>284.0</ele><time>2026-04-01T07:59:17Z</time></trkpt><trkpt lat="43.17331765346885" lon="-0.5363823568962769"><ele>284.0</ele><time>2026-04-01T07:59:18Z</time></trkpt><trkpt lat="43.17319276753247" lon="-0.5361802750258424"><ele>284.0</ele><time>2026-04-01T07:59:19Z</time></trkpt><trkpt lat="43.173068594888676" lon="-0.5359961651529062"><ele>284.0</ele><time>2026-04-01T07:59:20Z</time></trkpt><trkpt lat="43.17295020617593" lon="-0.5358116445867204"><ele>284.0</ele><time>2026-04-01T07:59:21Z</time></trkpt><trkpt lat="43.1728382484873" lon="-0.535642996503904"><ele>284.0</ele><time>2026-04-01T07:59:22Z</time></trkpt><trkpt lat="43.17274334690728" lon="-0.5354839339461362"><ele>284.0</ele><time>2026-04-01T07:59:23Z</time></trkpt><trkpt lat="43.17266279572416" lon="-0.5353426224217409"><ele>284.0</ele><time>2026-04-01T07:59:24Z</time></trkpt><trkpt lat="43.17259253488094" lon="-0.5352257634797519"><ele>284.0</ele><time>2026-04-01T07:59:25Z</time></trkpt><trkpt lat="43.172523561170216" lon="-0.5351106960658523"><ele>284.0</ele><time>2026-04-01T07:59:26Z</time></trkpt><trkpt lat="43.172467069343355" lon="-0.5350148931504016"><ele>284.0</ele><time>2026-04-01T07:59:27Z</time></trkpt><trkpt lat="43.17241799182776" lon="-0.5349294200775849"><ele>284.0</ele><time>2026-04-01T07:59:28Z</time></trkpt><trkpt lat="43.1723691065342" lon="-0.5348534645017801"><ele>284.0</ele><time>2026-04-01T07:59:29Z</time></trkpt><trkpt lat="43.17231985503578" lon="-0.534793876784554"><ele>284.0</ele><time>2026-04-01T07:59:30Z</time></trkpt><trkpt lat="43.1722617214812" lon="-0.5347515003455411"><ele>284.0</ele><time>2026-04-01T07:59:31Z</time></trkpt><trkpt lat="43.172200662766436" lon="-0.5347247042955257"><ele>284.0</ele><time>2026-04-01T07:59:32Z</time></trkpt><trkpt lat="43.17210661698433" lon="-0.5346474705686105"><ele>284.0</ele><time>2026-04-01T07:59:34Z</time></trkpt><trkpt lat="43.17208210447755" lon="-0.5345161809859873"><ele>284.59999999999997</ele><time>2026-04-01T07:59:36Z</time></trkpt><trkpt lat="43.17207992568236" lon="-0.5344193206041895"><ele>285.2</ele><time>2026-04-01T07:59:37Z</time></trkpt><trkpt lat="43.17205889771737" lon="-0.5342789235823542"><ele>285.79999999999995</ele><time>2026-04-01T07:59:38Z</time></trkpt><trkpt lat="43.17201029546761" lon="-0.5341579521450117"><ele>286.4</ele><time>2026-04-01T07:59:39Z</time></trkpt><trkpt lat="43.171939357749956" lon="-0.5340468583101463"><ele>287.0</ele><time>2026-04-01T07:59:40Z</time></trkpt><trkpt lat="43.171871468177805" lon="-0.5339165049732144"><ele>287.0</ele><time>2026-04-01T07:59:41Z</time></trkpt><trkpt lat="43.171782342440096" lon="-0.5337611633382269"><ele>287.0</ele><time>2026-04-01T07:59:42Z</time></trkpt><trkpt lat="43.171673711507005" lon="-0.533574171931485"><ele>287.0</ele><time>2026-04-01T07:59:43Z</time></trkpt><trkpt lat="43.171554724809745" lon="-0.533378274465431"><ele>287.6666666666667</ele><time>2026-04-01T07:59:44Z</time></trkpt><trkpt lat="43.17143574333781" lon="-0.5331906105819684"><ele>288.3333333333333</ele><time>2026-04-01T07:59:45Z</time></trkpt><trkpt lat="43.17130348535072" lon="-0.5329816612005565"><ele>289.0</ele><time>2026-04-01T07:59:46Z</time></trkpt><trkpt lat="43.171179294981116" lon="-0.5327673342585693"><ele>289.0</ele><time>2026-04-01T07:59:47Z</time></trkpt><trkpt lat="43.17105107439937" lon="-0.5325372319070394"><ele>289.0</ele><time>2026-04-01T07:59:48Z</time></trkpt><trkpt lat="43.17093522727106" lon="-0.5323032184854507"><ele>289.0</ele><time>2026-04-01T07:59:49Z</time></trkpt><trkpt lat="43.17082381722539" lon="-0.5320631514645365"><ele>289.3333333333333</ele><time>2026-04-01T07:59:50Z</time></trkpt><trkpt lat="43.17072029424021" lon="-0.531816622761298"><ele>289.6666666666667</ele><time>2026-04-01T07:59:51Z</time></trkpt><trkpt lat="43.17062274863537" lon="-0.5315690558710179"><ele>290.0</ele><time>2026-04-01T07:59:52Z</time></trkpt><trkpt lat="43.17053692172453" lon="-0.5313289048767459"><ele>291.0</ele><time>2026-04-01T07:59:53Z</time></trkpt><trkpt lat="43.17045892652093" lon="-0.5310913739648653"><ele>292.0</ele><time>2026-04-01T07:59:54Z</time></trkpt><trkpt lat="43.17038503507624" lon="-0.5308485646937071"><ele>293.0</ele><time>2026-04-01T07:59:55Z</time></trkpt><trkpt lat="43.17031807763855" lon="-0.5306032860782797"><ele>293.0</ele><time>2026-04-01T07:59:56Z</time></trkpt><trkpt lat="43.170250056369845" lon="-0.5303446552331887"><ele>293.0</ele><time>2026-04-01T07:59:57Z</time></trkpt><trkpt lat="43.170182197906776" lon="-0.5300910100063853"><ele>293.0</ele><time>2026-04-01T07:59:58Z</time></trkpt><trkpt lat="43.170117567766" lon="-0.5298331841774853"><ele>293.0</ele><time>2026-04-01T07:59:59Z</time></trkpt><trkpt lat="43.17005294058087" lon="-0.529578354568977"><ele>293.0</ele><time>2026-04-01T08:00:00Z</time></trkpt><trkpt lat="43.16999120544331" lon="-0.5293226525741926"><ele>293.0</ele><time>2026-04-01T08:00:01Z</time></trkpt><trkpt lat="43.16993237478944" lon="-0.5290625783212869"><ele>294.0</ele><time>2026-04-01T08:00:02Z</time></trkpt><trkpt lat="43.16987323954345" lon="-0.5288060183864383"><ele>295.0</ele><time>2026-04-01T08:00:03Z</time></trkpt><trkpt lat="43.16981939214874" lon="-0.5285566223603442"><ele>296.0</ele><time>2026-04-01T08:00:04Z</time></trkpt><trkpt lat="43.16976953149421" lon="-0.52830691940904"><ele>300.0</ele><time>2026-04-01T08:00:05Z</time></trkpt><trkpt lat="43.16972327176155" lon="-0.5280611102538155"><ele>304.0</ele><time>2026-04-01T08:00:06Z</time></trkpt><trkpt lat="43.16968259868424" lon="-0.5278152046642319"><ele>308.0</ele><time>2026-04-01T08:00:07Z</time></trkpt><trkpt lat="43.16964513840577" lon="-0.5275747567483624"><ele>310.33333333333337</ele><time>2026-04-01T08:00:08Z</time></trkpt><trkpt lat="43.1696025375365" lon="-0.5273315813479039"><ele>312.6666666666667</ele><time>2026-04-01T08:00:09Z</time></trkpt><trkpt lat="43.16954964182527" lon="-0.5271068340273526"><ele>315.0</ele><time>2026-04-01T08:00:10Z</time></trkpt><trkpt lat="43.16949227440937" lon="-0.5269074237003756"><ele>315.3333333333333</ele><time>2026-04-01T08:00:11Z</time></trkpt><trkpt lat="43.16941880931422" lon="-0.5267258572772913"><ele>315.66666666666663</ele><time>2026-04-01T08:00:12Z</time></trkpt><trkpt lat="43.16933627202218" lon="-0.52654771843505"><ele>316.0</ele><time>2026-04-01T08:00:13Z</time></trkpt><trkpt lat="43.16923051993724" lon="-0.5263756170905695"><ele>316.3333333333333</ele><time>2026-04-01T08:00:14Z</time></trkpt><trkpt lat="43.16911324299174" lon="-0.5262161916838991"><ele>316.6666666666667</ele><time>2026-04-01T08:00:15Z</time></trkpt><trkpt lat="43.16899353560986" lon="-0.526076339741568"><ele>317.0</ele><time>2026-04-01T08:00:16Z</time></trkpt><trkpt lat="43.16885758609035" lon="-0.5259434931483218"><ele>317.0</ele><time>2026-04-01T08:00:17Z</time></trkpt><trkpt lat="43.16872193179016" lon="-0.5258252110070593"><ele>317.0</ele><time>2026-04-01T08:00:18Z</time></trkpt><trkpt lat="43.168577212432886" lon="-0.5256964503096526"><ele>317.0</ele><time>2026-04-01T08:00:19Z</time></trkpt><trkpt lat="43.16844152088948" lon="-0.5255524662920966"><ele>317.6666666666667</ele><time>2026-04-01T08:00:20Z</time></trkpt><trkpt lat="43.1683139048833" lon="-0.5253937693756255"><ele>318.3333333333333</ele><time>2026-04-01T08:00:21Z</time></trkpt><trkpt lat="43.16819669365547" lon="-0.5252119345746818"><ele>319.0</ele><time>2026-04-01T08:00:22Z</time></trkpt><trkpt lat="43.168093763328706" lon="-0.5250073358234861"><ele>319.0</ele><time>2026-04-01T08:00:23Z</time></trkpt><trkpt lat="43.16800355282944" lon="-0.5247694446119585"><ele>319.0</ele><time>2026-04-01T08:00:24Z</time></trkpt><trkpt lat="43.16792615930708" lon="-0.524516577264023"><ele>319.0</ele><time>2026-04-01T08:00:25Z</time></trkpt><trkpt lat="43.16786418371295" lon="-0.5242555161571635"><ele>320.0</ele><time>2026-04-01T08:00:26Z</time></trkpt><trkpt lat="43.16781532395602" lon="-0.5239892655384891"><ele>321.0</ele><time>2026-04-01T08:00:27Z</time></trkpt><trkpt lat="43.167768155901676" lon="-0.5237112722331395"><ele>322.0</ele><time>2026-04-01T08:00:28Z</time></trkpt><trkpt lat="43.16771858184415" lon="-0.523448318908511"><ele>322.3333333333333</ele><time>2026-04-01T08:00:29Z</time></trkpt><trkpt lat="43.16766397647933" lon="-0.5231838005132249"><ele>322.6666666666667</ele><time>2026-04-01T08:00:30Z</time></trkpt><trkpt lat="43.16759766816048" lon="-0.5229017415241525"><ele>323.0</ele><time>2026-04-01T08:00:31Z</time></trkpt><trkpt lat="43.167526086403726" lon="-0.5226021189085295"><ele>323.0</ele><time>2026-04-01T08:00:32Z</time></trkpt><trkpt lat="43.167457611580865" lon="-0.5222920531253928"><ele>323.0</ele><time>2026-04-01T08:00:33Z</time></trkpt><trkpt lat="43.16738469629784" lon="-0.5219730185645982"><ele>325.0</ele><time>2026-04-01T08:00:34Z</time></trkpt><trkpt lat="43.167311534335816" lon="-0.5216402245645546"><ele>327.0</ele><time>2026-04-01T08:00:35Z</time></trkpt><trkpt lat="43.16724144586828" lon="-0.5212991927590397"><ele>325.5</ele><time>2026-04-01T08:00:36Z</time></trkpt><trkpt lat="43.167171841051456" lon="-0.5209579244196882"><ele>324.0</ele><time>2026-04-01T08:00:37Z</time></trkpt><trkpt lat="43.167097722436246" lon="-0.5206144802659616"><ele>324.5</ele><time>2026-04-01T08:00:38Z</time></trkpt><trkpt lat="43.16702390665766" lon="-0.5202788597015894"><ele>325.0</ele><time>2026-04-01T08:00:39Z</time></trkpt><trkpt lat="43.16695562916572" lon="-0.5199530656177384"><ele>325.0</ele><time>2026-04-01T08:00:40Z</time></trkpt><trkpt lat="43.16689105169422" lon="-0.5196283916308921"><ele>325.0</ele><time>2026-04-01T08:00:41Z</time></trkpt><trkpt lat="43.16682630520261" lon="-0.5193087838541475"><ele>326.0</ele><time>2026-04-01T08:00:42Z</time></trkpt><trkpt lat="43.16676027318532" lon="-0.518992191642756"><ele>327.0</ele><time>2026-04-01T08:00:43Z</time></trkpt><trkpt lat="43.16669518456362" lon="-0.518679835807302"><ele>328.0</ele><time>2026-04-01T08:00:44Z</time></trkpt><trkpt lat="43.166633326849606" lon="-0.5183705082634154"><ele>329.0</ele><time>2026-04-01T08:00:45Z</time></trkpt><trkpt lat="43.16657102922761" lon="-0.5180624193244687"><ele>329.0</ele><time>2026-04-01T08:00:46Z</time></trkpt><trkpt lat="43.166509555409434" lon="-0.5177580445103642"><ele>329.0</ele><time>2026-04-01T08:00:47Z</time></trkpt><trkpt lat="43.16644902382501" lon="-0.5174508402161788"><ele>329.0</ele><time>2026-04-01T08:00:48Z</time></trkpt><trkpt lat="43.166386568062485" lon="-0.5171469201470228"><ele>329.0</ele><time>2026-04-01T08:00:49Z</time></trkpt><trkpt lat="43.16632115668651" lon="-0.5168475399754197"><ele>328.0</ele><time>2026-04-01T08:00:50Z</time></trkpt><trkpt lat="43.166256800716255" lon="-0.5165440351127946"><ele>327.0</ele><time>2026-04-01T08:00:51Z</time></trkpt><trkpt lat="43.16619319272347" lon="-0.5162422088134719"><ele>327.5</ele><time>2026-04-01T08:00:52Z</time></trkpt><trkpt lat="43.1661288048145" lon="-0.5159356852266705"><ele>328.0</ele><time>2026-04-01T08:00:53Z</time></trkpt><trkpt lat="43.1660641317784" lon="-0.515630731721475"><ele>329.0</ele><time>2026-04-01T08:00:54Z</time></trkpt><trkpt lat="43.16600131635112" lon="-0.5153208191417337"><ele>330.0</ele><time>2026-04-01T08:00:55Z</time></trkpt><trkpt lat="43.16593903061842" lon="-0.5150153854697608"><ele>330.0</ele><time>2026-04-01T08:00:56Z</time></trkpt><trkpt lat="43.16587696162954" lon="-0.514712351611383"><ele>330.0</ele><time>2026-04-01T08:00:57Z</time></trkpt><trkpt lat="43.165815739721545" lon="-0.5144088701871948"><ele>331.0</ele><time>2026-04-01T08:00:58Z</time></trkpt><trkpt lat="43.16575372843569" lon="-0.5141050905352776"><ele>332.0</ele><time>2026-04-01T08:00:59Z</time></trkpt><trkpt lat="43.16568973350192" lon="-0.5137914430738546"><ele>335.0</ele><time>2026-04-01T08:01:00Z</time></trkpt><trkpt lat="43.16562342114523" lon="-0.513462104592078"><ele>338.0</ele><time>2026-04-01T08:01:01Z</time></trkpt><trkpt lat="43.16555141805941" lon="-0.5131299619268371"><ele>336.5</ele><time>2026-04-01T08:01:02Z</time></trkpt><trkpt lat="43.165485711167406" lon="-0.5128077469823116"><ele>335.0</ele><time>2026-04-01T08:01:03Z</time></trkpt><trkpt lat="43.16542023154586" lon="-0.5124843300536616"><ele>335.0</ele><time>2026-04-01T08:01:04Z</time></trkpt><trkpt lat="43.16535158225511" lon="-0.5121393125213776"><ele>335.0</ele><time>2026-04-01T08:01:05Z</time></trkpt><trkpt lat="43.165283302170224" lon="-0.5118003714769132"><ele>335.0</ele><time>2026-04-01T08:01:06Z</time></trkpt><trkpt lat="43.16521628552995" lon="-0.5114496860910998"><ele>335.0</ele><time>2026-04-01T08:01:07Z</time></trkpt><trkpt lat="43.16514636389633" lon="-0.5110778211464976"><ele>335.0</ele><time>2026-04-01T08:01:08Z</time></trkpt><trkpt lat="43.16506616506882" lon="-0.5106907243897325"><ele>335.0</ele><time>2026-04-01T08:01:09Z</time></trkpt><trkpt lat="43.16498063174448" lon="-0.5102892780149265"><ele>335.0</ele><time>2026-04-01T08:01:10Z</time></trkpt><trkpt lat="43.16489044187592" lon="-0.5098992568013433"><ele>335.0</ele><time>2026-04-01T08:01:11Z</time></trkpt><trkpt lat="43.16480026564319" lon="-0.5095180449296557"><ele>334.5</ele><time>2026-04-01T08:01:12Z</time></trkpt><trkpt lat="43.16471279724188" lon="-0.5091353705337499"><ele>334.0</ele><time>2026-04-01T08:01:13Z</time></trkpt><trkpt lat="43.16462978304351" lon="-0.5087513320000214"><ele>335.0</ele><time>2026-04-01T08:01:14Z</time></trkpt><trkpt lat="43.164547470875355" lon="-0.5083553502265907"><ele>336.0</ele><time>2026-04-01T08:01:15Z</time></trkpt><trkpt lat="43.16446323895367" lon="-0.5079480585048048"><ele>337.5</ele><time>2026-04-01T08:01:16Z</time></trkpt><trkpt lat="43.16437805794834" lon="-0.5075374513537932"><ele>339.0</ele><time>2026-04-01T08:01:17Z</time></trkpt><trkpt lat="43.16429462976957" lon="-0.507135525911183"><ele>340.0</ele><time>2026-04-01T08:01:18Z</time></trkpt><trkpt lat="43.16421143173899" lon="-0.5067363671811618"><ele>341.0</ele><time>2026-04-01T08:01:19Z</time></trkpt><trkpt lat="43.164132937215285" lon="-0.5063443914127046"><ele>341.0</ele><time>2026-04-01T08:01:20Z</time></trkpt><trkpt lat="43.16405439103092" lon="-0.5059562048643406"><ele>341.0</ele><time>2026-04-01T08:01:21Z</time></trkpt><trkpt lat="43.16397649676518" lon="-0.5055684515886892"><ele>339.5</ele><time>2026-04-01T08:01:22Z</time></trkpt><trkpt lat="43.16389867537092" lon="-0.5051850526296132"><ele>338.0</ele><time>2026-04-01T08:01:23Z</time></trkpt><trkpt lat="43.16382302209132" lon="-0.5048058607851033"><ele>338.5</ele><time>2026-04-01T08:01:24Z</time></trkpt><trkpt lat="43.16374569555894" lon="-0.5044234885833062"><ele>339.0</ele><time>2026-04-01T08:01:25Z</time></trkpt><trkpt lat="43.16367169854722" lon="-0.5040373393707858"><ele>340.0</ele><time>2026-04-01T08:01:26Z</time></trkpt><trkpt lat="43.16359637323111" lon="-0.503647083727442"><ele>341.0</ele><time>2026-04-01T08:01:27Z</time></trkpt><trkpt lat="43.163517590407494" lon="-0.5032518847427706"><ele>340.5</ele><time>2026-04-01T08:01:28Z</time></trkpt><trkpt lat="43.163438150484936" lon="-0.5028583316217836"><ele>340.0</ele><time>2026-04-01T08:01:29Z</time></trkpt><trkpt lat="43.16335768342743" lon="-0.5024621804992838"><ele>340.5</ele><time>2026-04-01T08:01:30Z</time></trkpt><trkpt lat="43.16327766548424" lon="-0.5020659832980567"><ele>341.0</ele><time>2026-04-01T08:01:31Z</time></trkpt><trkpt lat="43.16319820383088" lon="-0.5016715785571568"><ele>341.5</ele><time>2026-04-01T08:01:32Z</time></trkpt><trkpt lat="43.16311929073024" lon="-0.5012791280030922"><ele>342.0</ele><time>2026-04-01T08:01:33Z</time></trkpt><trkpt lat="43.16303970584955" lon="-0.5008911420973613"><ele>343.0</ele><time>2026-04-01T08:01:34Z</time></trkpt><trkpt lat="43.16296293501279" lon="-0.500514920162091"><ele>344.0</ele><time>2026-04-01T08:01:35Z</time></trkpt><trkpt lat="43.16288815676687" lon="-0.5001495027742839"><ele>345.5</ele><time>2026-04-01T08:01:36Z</time></trkpt><trkpt lat="43.162819701190756" lon="-0.4998014768962111"><ele>347.0</ele><time>2026-04-01T08:01:37Z</time></trkpt><trkpt lat="43.16275880938222" lon="-0.4994833947831386"><ele>347.0</ele><time>2026-04-01T08:01:38Z</time></trkpt><trkpt lat="43.162698162302576" lon="-0.49917760834723723"><ele>347.0</ele><time>2026-04-01T08:01:39Z</time></trkpt><trkpt lat="43.1626373350737" lon="-0.4988749001902065"><ele>346.33333333333337</ele><time>2026-04-01T08:01:40Z</time></trkpt><trkpt lat="43.16257817739412" lon="-0.49858225763308467"><ele>345.6666666666667</ele><time>2026-04-01T08:01:41Z</time></trkpt><trkpt lat="43.162526109657044" lon="-0.4983252953368047"><ele>345.0</ele><time>2026-04-01T08:01:42Z</time></trkpt><trkpt lat="43.16247776926404" lon="-0.49809608831000146"><ele>345.0</ele><time>2026-04-01T08:01:43Z</time></trkpt><trkpt lat="43.16243450262337" lon="-0.4978939711364906"><ele>345.0</ele><time>2026-04-01T08:01:44Z</time></trkpt><trkpt lat="43.162399174669844" lon="-0.4977184694080308"><ele>345.0</ele><time>2026-04-01T08:01:45Z</time></trkpt><trkpt lat="43.16236743668137" lon="-0.4975628647102064"><ele>345.0</ele><time>2026-04-01T08:01:46Z</time></trkpt><trkpt lat="43.16234807503877" lon="-0.497433471772842"><ele>345.0</ele><time>2026-04-01T08:01:47Z</time></trkpt><trkpt lat="43.162332147441425" lon="-0.4973227748879578"><ele>345.0</ele><time>2026-04-01T08:01:48Z</time></trkpt><trkpt lat="43.16231103394049" lon="-0.497230388594831"><ele>345.0</ele><time>2026-04-01T08:01:49Z</time></trkpt><trkpt lat="43.162280817016885" lon="-0.497147204390311"><ele>345.0</ele><time>2026-04-01T08:01:50Z</time></trkpt><trkpt lat="43.162201611449625" lon="-0.49704843975616986"><ele>345.0</ele><time>2026-04-01T08:01:52Z</time></trkpt><trkpt lat="43.162139135610644" lon="-0.49695013765089285"><ele>345.0</ele><time>2026-04-01T08:01:54Z</time></trkpt><trkpt lat="43.16212225117588" lon="-0.49681576546673106"><ele>345.4</ele><time>2026-04-01T08:01:56Z</time></trkpt><trkpt lat="43.162148569224264" lon="-0.49666058622656156"><ele>345.8</ele><time>2026-04-01T08:01:58Z</time></trkpt><trkpt lat="43.162169558786374" lon="-0.4965638137904331"><ele>346.20000000000005</ele><time>2026-04-01T08:01:59Z</time></trkpt><trkpt lat="43.162183281014684" lon="-0.49644968860264455"><ele>346.6</ele><time>2026-04-01T08:02:00Z</time></trkpt><trkpt lat="43.162182869948495" lon="-0.49631887726291035"><ele>347.0</ele><time>2026-04-01T08:02:01Z</time></trkpt><trkpt lat="43.162166394307675" lon="-0.4961744852133648"><ele>348.0</ele><time>2026-04-01T08:02:02Z</time></trkpt><trkpt lat="43.16215046577986" lon="-0.4960279996774169"><ele>349.0</ele><time>2026-04-01T08:02:03Z</time></trkpt><trkpt lat="43.162138996926664" lon="-0.4958629589611755"><ele>350.0</ele><time>2026-04-01T08:02:04Z</time></trkpt><trkpt lat="43.16211945323446" lon="-0.49568016006241056"><ele>351.0</ele><time>2026-04-01T08:02:05Z</time></trkpt><trkpt lat="43.1620939069695" lon="-0.4954666165788817"><ele>351.0</ele><time>2026-04-01T08:02:06Z</time></trkpt><trkpt lat="43.16206101471162" lon="-0.49522417543743297"><ele>351.0</ele><time>2026-04-01T08:02:07Z</time></trkpt><trkpt lat="43.16202366730466" lon="-0.49499008719887705"><ele>351.0</ele><time>2026-04-01T08:02:08Z</time></trkpt><trkpt lat="43.16197407366246" lon="-0.4947344549514898"><ele>349.3333333333333</ele><time>2026-04-01T08:02:09Z</time></trkpt><trkpt lat="43.161920454755396" lon="-0.49445756906234717"><ele>347.66666666666663</ele><time>2026-04-01T08:02:10Z</time></trkpt><trkpt lat="43.16186443918189" lon="-0.4941616713669535"><ele>346.0</ele><time>2026-04-01T08:02:11Z</time></trkpt><trkpt lat="43.161809487885165" lon="-0.493843193243609"><ele>345.0</ele><time>2026-04-01T08:02:12Z</time></trkpt><trkpt lat="43.1617594668362" lon="-0.4935166970824991"><ele>344.0</ele><time>2026-04-01T08:02:13Z</time></trkpt><trkpt lat="43.161708439047906" lon="-0.49318765982840124"><ele>344.5</ele><time>2026-04-01T08:02:14Z</time></trkpt><trkpt lat="43.16165388569632" lon="-0.49284553541557363"><ele>345.0</ele><time>2026-04-01T08:02:15Z</time></trkpt><trkpt lat="43.161598946547656" lon="-0.49249535059285315"><ele>345.0</ele><time>2026-04-01T08:02:16Z</time></trkpt><trkpt lat="43.161547538489835" lon="-0.49215142559083325"><ele>345.0</ele><time>2026-04-01T08:02:17Z</time></trkpt><trkpt lat="43.16149960625362" lon="-0.4918100134681713"><ele>342.0</ele><time>2026-04-01T08:02:18Z</time></trkpt><trkpt lat="43.16145467619014" lon="-0.49146911418285705"><ele>339.0</ele><time>2026-04-01T08:02:19Z</time></trkpt><trkpt lat="43.161407927385575" lon="-0.49113203235998354"><ele>338.5</ele><time>2026-04-01T08:02:20Z</time></trkpt><trkpt lat="43.161358932393654" lon="-0.49079487003638084"><ele>338.0</ele><time>2026-04-01T08:02:21Z</time></trkpt><trkpt lat="43.161312351535855" lon="-0.49045022387551057"><ele>337.5</ele><time>2026-04-01T08:02:22Z</time></trkpt><trkpt lat="43.16126505272554" lon="-0.4901077037547311"><ele>337.0</ele><time>2026-04-01T08:02:23Z</time></trkpt><trkpt lat="43.161218651061795" lon="-0.4897688347819731"><ele>335.5</ele><time>2026-04-01T08:02:24Z</time></trkpt><trkpt lat="43.161169834138185" lon="-0.489422489781022"><ele>334.0</ele><time>2026-04-01T08:02:25Z</time></trkpt><trkpt lat="43.16112206183378" lon="-0.4890872059380018"><ele>333.5</ele><time>2026-04-01T08:02:26Z</time></trkpt><trkpt lat="43.16107282335132" lon="-0.4887385638304177"><ele>333.0</ele><time>2026-04-01T08:02:27Z</time></trkpt><trkpt lat="43.16102192929272" lon="-0.48838003098819494"><ele>333.0</ele><time>2026-04-01T08:02:28Z</time></trkpt><trkpt lat="43.1609713641885" lon="-0.48800705621908513"><ele>333.0</ele><time>2026-04-01T08:02:29Z</time></trkpt><trkpt lat="43.16091888045479" lon="-0.4876382903485024"><ele>333.0</ele><time>2026-04-01T08:02:30Z</time></trkpt><trkpt lat="43.160863816430364" lon="-0.48727281467009625"><ele>333.0</ele><time>2026-04-01T08:02:31Z</time></trkpt><trkpt lat="43.16081663310948" lon="-0.4868951569430717"><ele>334.0</ele><time>2026-04-01T08:02:32Z</time></trkpt><trkpt lat="43.160762452397925" lon="-0.4865059100137963"><ele>335.0</ele><time>2026-04-01T08:02:33Z</time></trkpt><trkpt lat="43.16069913839301" lon="-0.4861060525813875"><ele>335.0</ele><time>2026-04-01T08:02:34Z</time></trkpt><trkpt lat="43.16064609360543" lon="-0.4857256202045723"><ele>335.0</ele><time>2026-04-01T08:02:35Z</time></trkpt><trkpt lat="43.16059370409141" lon="-0.48534353599734636"><ele>335.0</ele><time>2026-04-01T08:02:36Z</time></trkpt><trkpt lat="43.16053931400439" lon="-0.48496439857193857"><ele>335.0</ele><time>2026-04-01T08:02:37Z</time></trkpt><trkpt lat="43.16048751202093" lon="-0.4845867636271479"><ele>336.0</ele><time>2026-04-01T08:02:38Z</time></trkpt><trkpt lat="43.160438623492645" lon="-0.4842105973307836"><ele>337.0</ele><time>2026-04-01T08:02:39Z</time></trkpt><trkpt lat="43.16039322403743" lon="-0.48383609301788066"><ele>338.5</ele><time>2026-04-01T08:02:40Z</time></trkpt><trkpt lat="43.16035228900847" lon="-0.4834634817326823"><ele>340.0</ele><time>2026-04-01T08:02:41Z</time></trkpt><trkpt lat="43.16031826054743" lon="-0.48309109239991066"><ele>341.0</ele><time>2026-04-01T08:02:42Z</time></trkpt><trkpt lat="43.16029185055204" lon="-0.482712585069955"><ele>342.0</ele><time>2026-04-01T08:02:43Z</time></trkpt><trkpt lat="43.16027981717573" lon="-0.48233513272276973"><ele>342.5</ele><time>2026-04-01T08:02:44Z</time></trkpt><trkpt lat="43.16027723554779" lon="-0.4819627756872294"><ele>343.0</ele><time>2026-04-01T08:02:45Z</time></trkpt><trkpt lat="43.16028600139146" lon="-0.48159864157933857"><ele>343.0</ele><time>2026-04-01T08:02:46Z</time></trkpt><trkpt lat="43.16031466916018" lon="-0.4812588979019519"><ele>343.0</ele><time>2026-04-01T08:02:47Z</time></trkpt><trkpt lat="43.160328349270316" lon="-0.4809444375354281"><ele>343.0</ele><time>2026-04-01T08:02:48Z</time></trkpt><trkpt lat="43.160339302527504" lon="-0.48064778744894515"><ele>343.0</ele><time>2026-04-01T08:02:49Z</time></trkpt><trkpt lat="43.1603552049186" lon="-0.48036614523802895"><ele>343.0</ele><time>2026-04-01T08:02:50Z</time></trkpt><trkpt lat="43.1603218165074" lon="-0.4799558815044399"><ele>343.3333333333333</ele><time>2026-04-01T08:02:51Z</time></trkpt><trkpt lat="43.160321117419244" lon="-0.47964731220524676"><ele>343.6666666666667</ele><time>2026-04-01T08:02:52Z</time></trkpt><trkpt lat="43.160323097674066" lon="-0.47934081606853246"><ele>344.0</ele><time>2026-04-01T08:02:53Z</time></trkpt><trkpt lat="43.160323127163075" lon="-0.47903141783303965"><ele>344.5</ele><time>2026-04-01T08:02:54Z</time></trkpt><trkpt lat="43.16032106412815" lon="-0.47871772848282235"><ele>345.0</ele><time>2026-04-01T08:02:55Z</time></trkpt><trkpt lat="43.160318161158344" lon="-0.47840076374778245"><ele>345.0</ele><time>2026-04-01T08:02:56Z</time></trkpt><trkpt lat="43.16031295228577" lon="-0.4780804601188715"><ele>345.0</ele><time>2026-04-01T08:02:57Z</time></trkpt><trkpt lat="43.160309648613264" lon="-0.47776123259023257"><ele>346.5</ele><time>2026-04-01T08:02:58Z</time></trkpt><trkpt lat="43.16030139616877" lon="-0.4774387411481007"><ele>348.0</ele><time>2026-04-01T08:02:59Z</time></trkpt><trkpt lat="43.160292184642785" lon="-0.4771106407615886"><ele>348.0</ele><time>2026-04-01T08:03:00Z</time></trkpt><trkpt lat="43.16028835378709" lon="-0.4767659713954793"><ele>348.0</ele><time>2026-04-01T08:03:01Z</time></trkpt><trkpt lat="43.16028576683248" lon="-0.4764055549746048"><ele>348.5</ele><time>2026-04-01T08:03:02Z</time></trkpt><trkpt lat="43.16028617886161" lon="-0.47603445896352903"><ele>349.0</ele><time>2026-04-01T08:03:03Z</time></trkpt><trkpt lat="43.160287804265444" lon="-0.4756588329242324"><ele>349.0</ele><time>2026-04-01T08:03:04Z</time></trkpt><trkpt lat="43.160293659084786" lon="-0.4752815812794035"><ele>349.0</ele><time>2026-04-01T08:03:05Z</time></trkpt><trkpt lat="43.16030574907236" lon="-0.4749087821736737"><ele>350.5</ele><time>2026-04-01T08:03:06Z</time></trkpt><trkpt lat="43.16030997730705" lon="-0.474531885571012"><ele>352.0</ele><time>2026-04-01T08:03:07Z</time></trkpt><trkpt lat="43.160307632170536" lon="-0.47415282426752225"><ele>352.0</ele><time>2026-04-01T08:03:08Z</time></trkpt><trkpt lat="43.16030235091571" lon="-0.4737719827225602"><ele>352.0</ele><time>2026-04-01T08:03:09Z</time></trkpt><trkpt lat="43.160295216890525" lon="-0.4733890784720398"><ele>352.5</ele><time>2026-04-01T08:03:10Z</time></trkpt><trkpt lat="43.16029043915071" lon="-0.47300446743895946"><ele>353.0</ele><time>2026-04-01T08:03:11Z</time></trkpt><trkpt lat="43.160284219177626" lon="-0.4726198260072427"><ele>353.0</ele><time>2026-04-01T08:03:12Z</time></trkpt><trkpt lat="43.16028414185717" lon="-0.4722444479656832"><ele>353.0</ele><time>2026-04-01T08:03:13Z</time></trkpt><trkpt lat="43.16028115718039" lon="-0.47187335340395886"><ele>354.5</ele><time>2026-04-01T08:03:14Z</time></trkpt><trkpt lat="43.16027803165691" lon="-0.47150973736316637"><ele>356.0</ele><time>2026-04-01T08:03:15Z</time></trkpt><trkpt lat="43.1602756565985" lon="-0.47114354084781274"><ele>359.5</ele><time>2026-04-01T08:03:16Z</time></trkpt><trkpt lat="43.16027250454897" lon="-0.4707765219350377"><ele>363.0</ele><time>2026-04-01T08:03:17Z</time></trkpt><trkpt lat="43.160270480924794" lon="-0.47041526353774715"><ele>364.5</ele><time>2026-04-01T08:03:18Z</time></trkpt><trkpt lat="43.16026942037428" lon="-0.47005602724398216"><ele>366.0</ele><time>2026-04-01T08:03:19Z</time></trkpt><trkpt lat="43.160265469512424" lon="-0.46969480908508404"><ele>365.0</ele><time>2026-04-01T08:03:20Z</time></trkpt><trkpt lat="43.16026609952457" lon="-0.4693361808702223"><ele>364.0</ele><time>2026-04-01T08:03:21Z</time></trkpt><trkpt lat="43.16026546426492" lon="-0.46897725970114196"><ele>364.5</ele><time>2026-04-01T08:03:22Z</time></trkpt><trkpt lat="43.160267816381655" lon="-0.46861355131132437"><ele>365.0</ele><time>2026-04-01T08:03:23Z</time></trkpt><trkpt lat="43.16026742340308" lon="-0.4682493124484385"><ele>365.0</ele><time>2026-04-01T08:03:24Z</time></trkpt><trkpt lat="43.16026252472617" lon="-0.4678870349046744"><ele>365.0</ele><time>2026-04-01T08:03:25Z</time></trkpt><trkpt lat="43.16026250716933" lon="-0.4675288639872631"><ele>365.0</ele><time>2026-04-01T08:03:26Z</time></trkpt><trkpt lat="43.160258665459494" lon="-0.4671676798254368"><ele>365.0</ele><time>2026-04-01T08:03:27Z</time></trkpt><trkpt lat="43.16025379613658" lon="-0.46680120040785444"><ele>365.0</ele><time>2026-04-01T08:03:28Z</time></trkpt><trkpt lat="43.16025077612132" lon="-0.4664364549850628"><ele>365.0</ele><time>2026-04-01T08:03:29Z</time></trkpt><trkpt lat="43.160254072156846" lon="-0.4660702610519484"><ele>366.0</ele><time>2026-04-01T08:03:30Z</time></trkpt><trkpt lat="43.16025986118414" lon="-0.46570242013325835"><ele>367.0</ele><time>2026-04-01T08:03:31Z</time></trkpt><trkpt lat="43.16026274419727" lon="-0.46533446764410563"><ele>367.0</ele><time>2026-04-01T08:03:32Z</time></trkpt><trkpt lat="43.16026590369657" lon="-0.4649621791902243"><ele>367.0</ele><time>2026-04-01T08:03:33Z</time></trkpt><trkpt lat="43.16026348983867" lon="-0.4645957159817919"><ele>368.0</ele><time>2026-04-01T08:03:34Z</time></trkpt><trkpt lat="43.16026301097881" lon="-0.4642276201444087"><ele>369.0</ele><time>2026-04-01T08:03:35Z</time></trkpt><trkpt lat="43.1602616752223" lon="-0.4638554184940266"><ele>369.5</ele><time>2026-04-01T08:03:36Z</time></trkpt><trkpt lat="43.160265367450336" lon="-0.4634960744723597"><ele>370.0</ele><time>2026-04-01T08:03:37Z</time></trkpt><trkpt lat="43.160274704903415" lon="-0.4631429064671287"><ele>372.0</ele><time>2026-04-01T08:03:38Z</time></trkpt><trkpt lat="43.16029145399901" lon="-0.4627878042958921"><ele>374.0</ele><time>2026-04-01T08:03:39Z</time></trkpt><trkpt lat="43.16031876322499" lon="-0.46243960987093713"><ele>375.0</ele><time>2026-04-01T08:03:40Z</time></trkpt><trkpt lat="43.16035663047458" lon="-0.4621012658880914"><ele>376.0</ele><time>2026-04-01T08:03:41Z</time></trkpt><trkpt lat="43.16041271872289" lon="-0.46177305295579635"><ele>376.0</ele><time>2026-04-01T08:03:42Z</time></trkpt><trkpt lat="43.160484111847154" lon="-0.4614525396276567"><ele>376.0</ele><time>2026-04-01T08:03:43Z</time></trkpt><trkpt lat="43.1605732598204" lon="-0.4611344682278993"><ele>376.0</ele><time>2026-04-01T08:03:44Z</time></trkpt><trkpt lat="43.1606610675652" lon="-0.4608141511582769"><ele>376.0</ele><time>2026-04-01T08:03:45Z</time></trkpt><trkpt lat="43.16076001827211" lon="-0.4605075015396514"><ele>383.0</ele><time>2026-04-01T08:03:46Z</time></trkpt><trkpt lat="43.16087575619949" lon="-0.4602130389525894"><ele>390.0</ele><time>2026-04-01T08:03:47Z</time></trkpt><trkpt lat="43.161003584992585" lon="-0.4599360307756713"><ele>390.0</ele><time>2026-04-01T08:03:48Z</time></trkpt><trkpt lat="43.161141733201625" lon="-0.4596704507010027"><ele>390.0</ele><time>2026-04-01T08:03:49Z</time></trkpt><trkpt lat="43.16127642242046" lon="-0.4594088220757569"><ele>388.66666666666663</ele><time>2026-04-01T08:03:50Z</time></trkpt><trkpt lat="43.1613942393659" lon="-0.4591611687293395"><ele>387.3333333333333</ele><time>2026-04-01T08:03:51Z</time></trkpt><trkpt lat="43.16149308943884" lon="-0.45894195717590164"><ele>386.0</ele><time>2026-04-01T08:03:52Z</time></trkpt><trkpt lat="43.161581321531145" lon="-0.45875159441738256"><ele>388.75</ele><time>2026-04-01T08:03:53Z</time></trkpt><trkpt lat="43.16165830964431" lon="-0.45857464247416213"><ele>391.5</ele><time>2026-04-01T08:03:54Z</time></trkpt><trkpt lat="43.161721126859376" lon="-0.4584116125232678"><ele>394.25</ele><time>2026-04-01T08:03:55Z</time></trkpt><trkpt lat="43.16176199989925" lon="-0.45825229206397994"><ele>397.0</ele><time>2026-04-01T08:03:56Z</time></trkpt><trkpt lat="43.16176689718126" lon="-0.45810204211441585"><ele>397.5</ele><time>2026-04-01T08:03:57Z</time></trkpt><trkpt lat="43.16173317823105" lon="-0.45795075159670634"><ele>398.0</ele><time>2026-04-01T08:03:58Z</time></trkpt><trkpt lat="43.1616822884972" lon="-0.4578000732623912"><ele>398.5</ele><time>2026-04-01T08:03:59Z</time></trkpt><trkpt lat="43.16165603451213" lon="-0.4576455959786536"><ele>399.0</ele><time>2026-04-01T08:04:00Z</time></trkpt><trkpt lat="43.16167242698518" lon="-0.4574889237265095"><ele>399.0</ele><time>2026-04-01T08:04:01Z</time></trkpt><trkpt lat="43.16171451146625" lon="-0.45733726150547827"><ele>399.0</ele><time>2026-04-01T08:04:02Z</time></trkpt><trkpt lat="43.16174603403465" lon="-0.45717206515628894"><ele>399.0</ele><time>2026-04-01T08:04:03Z</time></trkpt><trkpt lat="43.16175102936368" lon="-0.45700217402926924"><ele>399.0</ele><time>2026-04-01T08:04:04Z</time></trkpt><trkpt lat="43.16173110845587" lon="-0.45684814311167954"><ele>398.5</ele><time>2026-04-01T08:04:05Z</time></trkpt><trkpt lat="43.161696946240106" lon="-0.45668785354848834"><ele>398.0</ele><time>2026-04-01T08:04:06Z</time></trkpt><trkpt lat="43.161657018770285" lon="-0.456515759467824"><ele>397.5</ele><time>2026-04-01T08:04:07Z</time></trkpt><trkpt lat="43.16160342050429" lon="-0.456338747876759"><ele>397.0</ele><time>2026-04-01T08:04:08Z</time></trkpt><trkpt lat="43.161532020777116" lon="-0.45616575707648765"><ele>397.0</ele><time>2026-04-01T08:04:09Z</time></trkpt><trkpt lat="43.16144335222315" lon="-0.4559951054335698"><ele>397.0</ele><time>2026-04-01T08:04:10Z</time></trkpt><trkpt lat="43.16134106897813" lon="-0.4558268454820388"><ele>397.0</ele><time>2026-04-01T08:04:11Z</time></trkpt><trkpt lat="43.16122989394814" lon="-0.45566280203062093"><ele>397.0</ele><time>2026-04-01T08:04:12Z</time></trkpt><trkpt lat="43.161112698273975" lon="-0.4554981090152188"><ele>397.0</ele><time>2026-04-01T08:04:13Z</time></trkpt><trkpt lat="43.16098280264369" lon="-0.4553209913412679"><ele>397.0</ele><time>2026-04-01T08:04:14Z</time></trkpt><trkpt lat="43.16085371469212" lon="-0.455154846541698"><ele>397.6666666666667</ele><time>2026-04-01T08:04:15Z</time></trkpt><trkpt lat="43.16071624916289" lon="-0.45498221068577577"><ele>398.33333333333337</ele><time>2026-04-01T08:04:16Z</time></trkpt><trkpt lat="43.16056573245735" lon="-0.4548001247856929"><ele>399.0</ele><time>2026-04-01T08:04:17Z</time></trkpt><trkpt lat="43.1604114257008" lon="-0.4546148825671838"><ele>395.33333333333337</ele><time>2026-04-01T08:04:18Z</time></trkpt><trkpt lat="43.160256499743795" lon="-0.45442924005957647"><ele>391.6666666666667</ele><time>2026-04-01T08:04:19Z</time></trkpt><trkpt lat="43.1600959106869" lon="-0.4542415227079736"><ele>388.0</ele><time>2026-04-01T08:04:20Z</time></trkpt><trkpt lat="43.15993841642546" lon="-0.45405374617790156"><ele>386.0</ele><time>2026-04-01T08:04:21Z</time></trkpt><trkpt lat="43.1597882294437" lon="-0.45386432000025"><ele>384.0</ele><time>2026-04-01T08:04:22Z</time></trkpt><trkpt lat="43.15964427536907" lon="-0.4536644881069289"><ele>382.0</ele><time>2026-04-01T08:04:23Z</time></trkpt><trkpt lat="43.15950258104946" lon="-0.4534571563276768"><ele>382.0</ele><time>2026-04-01T08:04:24Z</time></trkpt><trkpt lat="43.15936933636027" lon="-0.4532497602549038"><ele>382.0</ele><time>2026-04-01T08:04:25Z</time></trkpt><trkpt lat="43.15922355448982" lon="-0.4530454569023408"><ele>382.0</ele><time>2026-04-01T08:04:26Z</time></trkpt><trkpt lat="43.159081043039194" lon="-0.45284702223553497"><ele>380.66666666666663</ele><time>2026-04-01T08:04:27Z</time></trkpt><trkpt lat="43.158945289806084" lon="-0.45265271885171626"><ele>379.3333333333333</ele><time>2026-04-01T08:04:28Z</time></trkpt><trkpt lat="43.158814634527516" lon="-0.45247216301229093"><ele>378.0</ele><time>2026-04-01T08:04:29Z</time></trkpt><trkpt lat="43.15866385257287" lon="-0.4522997834335314"><ele>378.0</ele><time>2026-04-01T08:04:30Z</time></trkpt><trkpt lat="43.158516949782616" lon="-0.45215302966344517"><ele>378.0</ele><time>2026-04-01T08:04:31Z</time></trkpt><trkpt lat="43.158340351645336" lon="-0.4520115084035576"><ele>378.0</ele><time>2026-04-01T08:04:32Z</time></trkpt><trkpt lat="43.15817371740499" lon="-0.45186137267548326"><ele>377.6666666666667</ele><time>2026-04-01T08:04:33Z</time></trkpt><trkpt lat="43.158014414450314" lon="-0.4517124389358994"><ele>377.33333333333337</ele><time>2026-04-01T08:04:34Z</time></trkpt><trkpt lat="43.15787020831403" lon="-0.4515778796322651"><ele>377.0</ele><time>2026-04-01T08:04:35Z</time></trkpt><trkpt lat="43.157727853342834" lon="-0.45144599828860693"><ele>377.0</ele><time>2026-04-01T08:04:36Z</time></trkpt><trkpt lat="43.15759622885841" lon="-0.45131912555261117"><ele>377.0</ele><time>2026-04-01T08:04:37Z</time></trkpt><trkpt lat="43.157461951001366" lon="-0.4511949161351061"><ele>377.0</ele><time>2026-04-01T08:04:38Z</time></trkpt><trkpt lat="43.1573206500257" lon="-0.4510724900460418"><ele>375.6666666666667</ele><time>2026-04-01T08:04:39Z</time></trkpt><trkpt lat="43.15716688945432" lon="-0.4509656790206677"><ele>374.3333333333333</ele><time>2026-04-01T08:04:40Z</time></trkpt><trkpt lat="43.156995446423615" lon="-0.4508823421382986"><ele>373.0</ele><time>2026-04-01T08:04:41Z</time></trkpt><trkpt lat="43.15683591012444" lon="-0.4508186613146403"><ele>373.0</ele><time>2026-04-01T08:04:42Z</time></trkpt><trkpt lat="43.15668712262688" lon="-0.4507760166259935"><ele>373.0</ele><time>2026-04-01T08:04:43Z</time></trkpt><trkpt lat="43.15653869947741" lon="-0.45078771598295975"><ele>373.0</ele><time>2026-04-01T08:04:44Z</time></trkpt><trkpt lat="43.1564017146905" lon="-0.45084101115333075"><ele>373.0</ele><time>2026-04-01T08:04:45Z</time></trkpt><trkpt lat="43.15626961090503" lon="-0.45092977655033667"><ele>373.75</ele><time>2026-04-01T08:04:46Z</time></trkpt><trkpt lat="43.15612899727363" lon="-0.4510214363191428"><ele>374.5</ele><time>2026-04-01T08:04:47Z</time></trkpt><trkpt lat="43.15598974173304" lon="-0.4511094098240316"><ele>375.25</ele><time>2026-04-01T08:04:48Z</time></trkpt><trkpt lat="43.15586656469566" lon="-0.4511820650769997"><ele>376.0</ele><time>2026-04-01T08:04:49Z</time></trkpt><trkpt lat="43.15573957074132" lon="-0.45121869906122036"><ele>375.66666666666663</ele><time>2026-04-01T08:04:50Z</time></trkpt><trkpt lat="43.155608709338594" lon="-0.45120925406510815"><ele>375.3333333333333</ele><time>2026-04-01T08:04:51Z</time></trkpt><trkpt lat="43.155456862101644" lon="-0.4511764653527005"><ele>375.0</ele><time>2026-04-01T08:04:52Z</time></trkpt><trkpt lat="43.15528924108531" lon="-0.45112976875426747"><ele>375.0</ele><time>2026-04-01T08:04:53Z</time></trkpt><trkpt lat="43.15511273187099" lon="-0.45106976455246217"><ele>375.0</ele><time>2026-04-01T08:04:54Z</time></trkpt><trkpt lat="43.15491364266669" lon="-0.45100995196492283"><ele>375.0</ele><time>2026-04-01T08:04:55Z</time></trkpt><trkpt lat="43.15471998807025" lon="-0.4509488385445035"><ele>373.3333333333333</ele><time>2026-04-01T08:04:56Z</time></trkpt><trkpt lat="43.154513455581444" lon="-0.45090087289125175"><ele>371.66666666666663</ele><time>2026-04-01T08:04:57Z</time></trkpt><trkpt lat="43.15431385237519" lon="-0.45084395077056916"><ele>370.0</ele><time>2026-04-01T08:04:58Z</time></trkpt><trkpt lat="43.1541158079282" lon="-0.45078665396062906"><ele>370.0</ele><time>2026-04-01T08:04:59Z</time></trkpt><trkpt lat="43.15391965993736" lon="-0.4507296209958908"><ele>370.0</ele><time>2026-04-01T08:05:00Z</time></trkpt><trkpt lat="43.15372424167752" lon="-0.4506736666254802"><ele>370.0</ele><time>2026-04-01T08:05:01Z</time></trkpt><trkpt lat="43.15351834291104" lon="-0.45061179681833036"><ele>370.0</ele><time>2026-04-01T08:05:02Z</time></trkpt><trkpt lat="43.15331987010347" lon="-0.45055361911625724"><ele>370.0</ele><time>2026-04-01T08:05:03Z</time></trkpt><trkpt lat="43.15312649221855" lon="-0.4504990545529488"><ele>370.0</ele><time>2026-04-01T08:05:04Z</time></trkpt><trkpt lat="43.152935472989725" lon="-0.4504411570884588"><ele>370.66666666666663</ele><time>2026-04-01T08:05:05Z</time></trkpt><trkpt lat="43.15273866662115" lon="-0.4503848422866085"><ele>371.3333333333333</ele><time>2026-04-01T08:05:06Z</time></trkpt><trkpt lat="43.15255128442191" lon="-0.4503338610404524"><ele>372.0</ele><time>2026-04-01T08:05:07Z</time></trkpt><trkpt lat="43.152355038577866" lon="-0.4502938192822435"><ele>370.6666666666667</ele><time>2026-04-01T08:05:08Z</time></trkpt><trkpt lat="43.152153954479516" lon="-0.450259340777607"><ele>369.33333333333337</ele><time>2026-04-01T08:05:09Z</time></trkpt><trkpt lat="43.15195222972911" lon="-0.4502245502357394"><ele>368.0</ele><time>2026-04-01T08:05:10Z</time></trkpt><trkpt lat="43.15174828130235" lon="-0.450183305451035"><ele>368.0</ele><time>2026-04-01T08:05:11Z</time></trkpt><trkpt lat="43.15155151493077" lon="-0.4501470044517769"><ele>368.0</ele><time>2026-04-01T08:05:12Z</time></trkpt><trkpt lat="43.151368271061294" lon="-0.4501132251114148"><ele>368.0</ele><time>2026-04-01T08:05:13Z</time></trkpt><trkpt lat="43.15119135942586" lon="-0.450082449039463"><ele>367.6666666666667</ele><time>2026-04-01T08:05:14Z</time></trkpt><trkpt lat="43.151037657793715" lon="-0.45006014591083904"><ele>367.3333333333333</ele><time>2026-04-01T08:05:15Z</time></trkpt><trkpt lat="43.15083544546599" lon="-0.4500863720976083"><ele>367.0</ele><time>2026-04-01T08:05:16Z</time></trkpt><trkpt lat="43.15066903128164" lon="-0.4501744634390406"><ele>367.0</ele><time>2026-04-01T08:05:17Z</time></trkpt><trkpt lat="43.15050019128825" lon="-0.450282179130399"><ele>367.0</ele><time>2026-04-01T08:05:18Z</time></trkpt><trkpt lat="43.150321623976616" lon="-0.4503731314238094"><ele>367.0</ele><time>2026-04-01T08:05:19Z</time></trkpt><trkpt lat="43.150149969729696" lon="-0.45049725888876296"><ele>367.0</ele><time>2026-04-01T08:05:20Z</time></trkpt><trkpt lat="43.14995282084349" lon="-0.4506109750246534"><ele>367.0</ele><time>2026-04-01T08:05:21Z</time></trkpt><trkpt lat="43.14976650713097" lon="-0.4507153226125283"><ele>367.0</ele><time>2026-04-01T08:05:22Z</time></trkpt><trkpt lat="43.14957078586609" lon="-0.45082973573638235"><ele>369.66666666666663</ele><time>2026-04-01T08:05:23Z</time></trkpt><trkpt lat="43.14938307399704" lon="-0.45094226133752585"><ele>372.3333333333333</ele><time>2026-04-01T08:05:24Z</time></trkpt><trkpt lat="43.14920155020334" lon="-0.45105417449275587"><ele>375.0</ele><time>2026-04-01T08:05:25Z</time></trkpt><trkpt lat="43.14902414498596" lon="-0.4511649638572642"><ele>376.3333333333333</ele><time>2026-04-01T08:05:26Z</time></trkpt><trkpt lat="43.14884230228488" lon="-0.4512800922364728"><ele>377.66666666666663</ele><time>2026-04-01T08:05:27Z</time></trkpt><trkpt lat="43.14866661296497" lon="-0.45138792140768563"><ele>379.0</ele><time>2026-04-01T08:05:28Z</time></trkpt><trkpt lat="43.14849906267059" lon="-0.4514860977458179"><ele>379.0</ele><time>2026-04-01T08:05:29Z</time></trkpt><trkpt lat="43.148333120680356" lon="-0.4515815874734298"><ele>379.0</ele><time>2026-04-01T08:05:30Z</time></trkpt><trkpt lat="43.1481665824435" lon="-0.451674152794911"><ele>379.0</ele><time>2026-04-01T08:05:31Z</time></trkpt><trkpt lat="43.148011773371174" lon="-0.45175615767925653"><ele>380.3333333333333</ele><time>2026-04-01T08:05:32Z</time></trkpt><trkpt lat="43.14786598004688" lon="-0.4518392170541951"><ele>381.6666666666667</ele><time>2026-04-01T08:05:33Z</time></trkpt><trkpt lat="43.14770906534031" lon="-0.4519369737853872"><ele>383.0</ele><time>2026-04-01T08:05:34Z</time></trkpt><trkpt lat="43.14755025710346" lon="-0.4520494535076043"><ele>384.0</ele><time>2026-04-01T08:05:35Z</time></trkpt><trkpt lat="43.147370247842204" lon="-0.4521807582514112"><ele>385.0</ele><time>2026-04-01T08:05:36Z</time></trkpt><trkpt lat="43.14718567175527" lon="-0.45232242097693814"><ele>386.0</ele><time>2026-04-01T08:05:37Z</time></trkpt><trkpt lat="43.14700335202912" lon="-0.4524686347583708"><ele>386.0</ele><time>2026-04-01T08:05:38Z</time></trkpt><trkpt lat="43.14681784266688" lon="-0.4526175582098777"><ele>386.0</ele><time>2026-04-01T08:05:39Z</time></trkpt><trkpt lat="43.14663141578571" lon="-0.4527743126582386"><ele>386.0</ele><time>2026-04-01T08:05:40Z</time></trkpt><trkpt lat="43.14644343569628" lon="-0.45293703802775953"><ele>386.66666666666663</ele><time>2026-04-01T08:05:41Z</time></trkpt><trkpt lat="43.14627814727695" lon="-0.45308919241984935"><ele>387.33333333333337</ele><time>2026-04-01T08:05:42Z</time></trkpt><trkpt lat="43.146098834713996" lon="-0.453241631226751"><ele>388.0</ele><time>2026-04-01T08:05:43Z</time></trkpt><trkpt lat="43.14591629379238" lon="-0.45338621362403114"><ele>388.0</ele><time>2026-04-01T08:05:44Z</time></trkpt><trkpt lat="43.14572274439281" lon="-0.45352540054190615"><ele>388.0</ele><time>2026-04-01T08:05:45Z</time></trkpt><trkpt lat="43.145527267641" lon="-0.453656849599006"><ele>388.0</ele><time>2026-04-01T08:05:46Z</time></trkpt><trkpt lat="43.145339048972275" lon="-0.4537809951700829"><ele>387.6666666666667</ele><time>2026-04-01T08:05:47Z</time></trkpt><trkpt lat="43.145154248586294" lon="-0.4539005773399323"><ele>387.33333333333337</ele><time>2026-04-01T08:05:48Z</time></trkpt><trkpt lat="43.14497699280352" lon="-0.454006872502534"><ele>387.0</ele><time>2026-04-01T08:05:49Z</time></trkpt><trkpt lat="43.144785784123385" lon="-0.4541078533268972"><ele>386.66666666666663</ele><time>2026-04-01T08:05:50Z</time></trkpt><trkpt lat="43.14459193922339" lon="-0.4542054927597956"><ele>386.3333333333333</ele><time>2026-04-01T08:05:51Z</time></trkpt><trkpt lat="43.144414347109745" lon="-0.45432503055724743"><ele>386.0</ele><time>2026-04-01T08:05:52Z</time></trkpt><trkpt lat="43.14421778014542" lon="-0.4544360578426525"><ele>385.3333333333333</ele><time>2026-04-01T08:05:53Z</time></trkpt><trkpt lat="43.14403467178391" lon="-0.45454484654850585"><ele>384.66666666666663</ele><time>2026-04-01T08:05:54Z</time></trkpt><trkpt lat="43.14385344812609" lon="-0.4546614321849236"><ele>384.0</ele><time>2026-04-01T08:05:55Z</time></trkpt><trkpt lat="43.143672783078806" lon="-0.4547885803447497"><ele>383.6666666666667</ele><time>2026-04-01T08:05:56Z</time></trkpt><trkpt lat="43.14350889683482" lon="-0.45492412711489427"><ele>383.33333333333337</ele><time>2026-04-01T08:05:57Z</time></trkpt><trkpt lat="43.14335125703759" lon="-0.45506683862924174"><ele>383.0</ele><time>2026-04-01T08:05:58Z</time></trkpt><trkpt lat="43.143188968546994" lon="-0.4551936520252178"><ele>382.0</ele><time>2026-04-01T08:05:59Z</time></trkpt><trkpt lat="43.143029696833636" lon="-0.4553291587251287"><ele>381.0</ele><time>2026-04-01T08:06:00Z</time></trkpt><trkpt lat="43.14286313681989" lon="-0.4554312642329341"><ele>380.0</ele><time>2026-04-01T08:06:01Z</time></trkpt><trkpt lat="43.14270103808026" lon="-0.45550035404017863"><ele>379.0</ele><time>2026-04-01T08:06:02Z</time></trkpt><trkpt lat="43.14254218574625" lon="-0.4555810159111582"><ele>378.0</ele><time>2026-04-01T08:06:03Z</time></trkpt><trkpt lat="43.142336526258426" lon="-0.4556105132106464"><ele>377.0</ele><time>2026-04-01T08:06:04Z</time></trkpt><trkpt lat="43.142121631597895" lon="-0.4556537642389554"><ele>374.0</ele><time>2026-04-01T08:06:05Z</time></trkpt><trkpt lat="43.141903798253296" lon="-0.45571828793251"><ele>371.0</ele><time>2026-04-01T08:06:06Z</time></trkpt><trkpt lat="43.14169394645626" lon="-0.455756858939374"><ele>368.0</ele><time>2026-04-01T08:06:07Z</time></trkpt><trkpt lat="43.141494267574146" lon="-0.45582516168591647"><ele>367.0</ele><time>2026-04-01T08:06:08Z</time></trkpt><trkpt lat="43.14129042896183" lon="-0.4559013390080343"><ele>366.0</ele><time>2026-04-01T08:06:09Z</time></trkpt><trkpt lat="43.141101947452135" lon="-0.45602091563162045"><ele>365.0</ele><time>2026-04-01T08:06:10Z</time></trkpt><trkpt lat="43.140908879967135" lon="-0.4561176676096774"><ele>365.0</ele><time>2026-04-01T08:06:11Z</time></trkpt><trkpt lat="43.14072550459801" lon="-0.45623814582509425"><ele>365.0</ele><time>2026-04-01T08:06:12Z</time></trkpt><trkpt lat="43.1405346789441" lon="-0.4563556785120214"><ele>365.0</ele><time>2026-04-01T08:06:13Z</time></trkpt><trkpt lat="43.14034546029497" lon="-0.4564680703859824"><ele>364.33333333333337</ele><time>2026-04-01T08:06:14Z</time></trkpt><trkpt lat="43.14015990570768" lon="-0.45658036644896427"><ele>363.6666666666667</ele><time>2026-04-01T08:06:15Z</time></trkpt><trkpt lat="43.139979610084744" lon="-0.4566908795931795"><ele>363.0</ele><time>2026-04-01T08:06:16Z</time></trkpt><trkpt lat="43.13979340056935" lon="-0.4568035745476058"><ele>362.6666666666667</ele><time>2026-04-01T08:06:17Z</time></trkpt><trkpt lat="43.139610430385716" lon="-0.45691512267359913"><ele>362.33333333333337</ele><time>2026-04-01T08:06:18Z</time></trkpt><trkpt lat="43.13943276631689" lon="-0.45702492376126425"><ele>362.0</ele><time>2026-04-01T08:06:19Z</time></trkpt><trkpt lat="43.139253530287796" lon="-0.45713499453185746"><ele>362.0</ele><time>2026-04-01T08:06:20Z</time></trkpt><trkpt lat="43.13907530211829" lon="-0.45724192847488504"><ele>362.0</ele><time>2026-04-01T08:06:21Z</time></trkpt><trkpt lat="43.13890010438074" lon="-0.457350093429413"><ele>362.0</ele><time>2026-04-01T08:06:22Z</time></trkpt><trkpt lat="43.138726628259576" lon="-0.4574577853441204"><ele>362.0</ele><time>2026-04-01T08:06:23Z</time></trkpt><trkpt lat="43.13855035671356" lon="-0.45756366032140877"><ele>362.0</ele><time>2026-04-01T08:06:24Z</time></trkpt><trkpt lat="43.138372322944385" lon="-0.4576756781806269"><ele>362.0</ele><time>2026-04-01T08:06:25Z</time></trkpt><trkpt lat="43.138193445112734" lon="-0.45778418653031566"><ele>362.0</ele><time>2026-04-01T08:06:26Z</time></trkpt><trkpt lat="43.13800087869644" lon="-0.4578995009447186"><ele>362.0</ele><time>2026-04-01T08:06:27Z</time></trkpt><trkpt lat="43.13781620644964" lon="-0.45800903469709797"><ele>362.0</ele><time>2026-04-01T08:06:28Z</time></trkpt><trkpt lat="43.13763486010745" lon="-0.45812091276622485"><ele>362.0</ele><time>2026-04-01T08:06:29Z</time></trkpt><trkpt lat="43.13745184932854" lon="-0.4582349197763775"><ele>362.0</ele><time>2026-04-01T08:06:30Z</time></trkpt><trkpt lat="43.13726999041119" lon="-0.45834656477777086"><ele>362.0</ele><time>2026-04-01T08:06:31Z</time></trkpt><trkpt lat="43.137097764896176" lon="-0.45845676656888024"><ele>362.6666666666667</ele><time>2026-04-01T08:06:32Z</time></trkpt><trkpt lat="43.13694089027369" lon="-0.45855953100964764"><ele>363.3333333333333</ele><time>2026-04-01T08:06:33Z</time></trkpt><trkpt lat="43.1367945560867" lon="-0.45865265309931236"><ele>364.0</ele><time>2026-04-01T08:06:34Z</time></trkpt><trkpt lat="43.136655657566344" lon="-0.45873973908019755"><ele>364.25</ele><time>2026-04-01T08:06:35Z</time></trkpt><trkpt lat="43.13652508626813" lon="-0.4588183247562583"><ele>364.5</ele><time>2026-04-01T08:06:36Z</time></trkpt><trkpt lat="43.136397728868495" lon="-0.458891843538598"><ele>364.75</ele><time>2026-04-01T08:06:37Z</time></trkpt><trkpt lat="43.136269696906034" lon="-0.45896336727179254"><ele>365.0</ele><time>2026-04-01T08:06:38Z</time></trkpt><trkpt lat="43.136136457025614" lon="-0.45903795612793175"><ele>365.0</ele><time>2026-04-01T08:06:39Z</time></trkpt><trkpt lat="43.13600086838558" lon="-0.459116623391282"><ele>365.0</ele><time>2026-04-01T08:06:40Z</time></trkpt><trkpt lat="43.135868672858805" lon="-0.45919442080900685"><ele>365.0</ele><time>2026-04-01T08:06:41Z</time></trkpt><trkpt lat="43.13573898834925" lon="-0.4592707182048746"><ele>365.0</ele><time>2026-04-01T08:06:42Z</time></trkpt><trkpt lat="43.13562491624045" lon="-0.4593435238146129"><ele>365.6</ele><time>2026-04-01T08:06:43Z</time></trkpt><trkpt lat="43.13551981541055" lon="-0.459408966815203"><ele>366.2</ele><time>2026-04-01T08:06:44Z</time></trkpt><trkpt lat="43.13542172047615" lon="-0.4594682466726222"><ele>366.79999999999995</ele><time>2026-04-01T08:06:45Z</time></trkpt><trkpt lat="43.13533410671785" lon="-0.4595278658790789"><ele>367.4</ele><time>2026-04-01T08:06:46Z</time></trkpt><trkpt lat="43.13527381996536" lon="-0.4595678064969213"><ele>368.0</ele><time>2026-04-01T08:06:47Z</time></trkpt><trkpt lat="43.135208246349386" lon="-0.4596004660213232"><ele>368.0</ele><time>2026-04-01T08:06:49Z</time></trkpt><trkpt lat="43.13513067563029" lon="-0.45962270765393776"><ele>368.0</ele><time>2026-04-01T08:06:57Z</time></trkpt><trkpt lat="43.13503118099261" lon="-0.45952347873508814"><ele>368.0</ele><time>2026-04-01T08:07:00Z</time></trkpt><trkpt lat="43.13499297953627" lon="-0.4594488465059221"><ele>368.0</ele><time>2026-04-01T08:07:01Z</time></trkpt><trkpt lat="43.13494312143388" lon="-0.4593156816639375"><ele>368.0</ele><time>2026-04-01T08:07:03Z</time></trkpt><trkpt lat="43.13491127570501" lon="-0.45923366959906853"><ele>368.0</ele><time>2026-04-01T08:07:04Z</time></trkpt><trkpt lat="43.134872441037174" lon="-0.45914885879607564"><ele>368.0</ele><time>2026-04-01T08:07:05Z</time></trkpt><trkpt lat="43.1348234914059" lon="-0.4590645548780923"><ele>368.0</ele><time>2026-04-01T08:07:06Z</time></trkpt><trkpt lat="43.13477143601862" lon="-0.45898807715013545"><ele>368.0</ele><time>2026-04-01T08:07:07Z</time></trkpt><trkpt lat="43.134716327249755" lon="-0.45890574501920056"><ele>368.0</ele><time>2026-04-01T08:07:08Z</time></trkpt><trkpt lat="43.134663140715745" lon="-0.4588278595437752"><ele>368.0</ele><time>2026-04-01T08:07:09Z</time></trkpt><trkpt lat="43.13462309292294" lon="-0.45875487401670206"><ele>368.0</ele><time>2026-04-01T08:07:10Z</time></trkpt><trkpt lat="43.13460086817069" lon="-0.45867387422058215"><ele>368.0</ele><time>2026-04-01T08:07:11Z</time></trkpt><trkpt lat="43.13457620801256" lon="-0.45850043409813773"><ele>368.1666666666667</ele><time>2026-04-01T08:07:13Z</time></trkpt><trkpt lat="43.134565912059955" lon="-0.45840451483531003"><ele>368.33333333333337</ele><time>2026-04-01T08:07:14Z</time></trkpt><trkpt lat="43.13454526745712" lon="-0.4583010039871514"><ele>368.5</ele><time>2026-04-01T08:07:15Z</time></trkpt><trkpt lat="43.13451046717228" lon="-0.45820269700869093"><ele>368.6666666666667</ele><time>2026-04-01T08:07:16Z</time></trkpt><trkpt lat="43.13448012861124" lon="-0.4581087468406821"><ele>368.8333333333333</ele><time>2026-04-01T08:07:17Z</time></trkpt><trkpt lat="43.13444233806025" lon="-0.4580076955509996"><ele>369.0</ele><time>2026-04-01T08:07:18Z</time></trkpt><trkpt lat="43.13439824222585" lon="-0.457913455524007"><ele>369.5</ele><time>2026-04-01T08:07:19Z</time></trkpt><trkpt lat="43.1343457561094" lon="-0.4578206063179573"><ele>370.0</ele><time>2026-04-01T08:07:20Z</time></trkpt><trkpt lat="43.134276866471545" lon="-0.4577547154114067"><ele>370.5</ele><time>2026-04-01T08:07:21Z</time></trkpt><trkpt lat="43.13420080502909" lon="-0.45771670986737123"><ele>371.0</ele><time>2026-04-01T08:07:22Z</time></trkpt><trkpt lat="43.13411797476896" lon="-0.457697739570567"><ele>371.5</ele><time>2026-04-01T08:07:23Z</time></trkpt><trkpt lat="43.13403238287503" lon="-0.45768745141874095"><ele>372.0</ele><time>2026-04-01T08:07:24Z</time></trkpt><trkpt lat="43.133950971184596" lon="-0.4576876953913904"><ele>372.3333333333333</ele><time>2026-04-01T08:07:25Z</time></trkpt><trkpt lat="43.13387692211294" lon="-0.45769185833060644"><ele>372.6666666666667</ele><time>2026-04-01T08:07:26Z</time></trkpt><trkpt lat="43.133804708353445" lon="-0.45769978133017775"><ele>373.0</ele><time>2026-04-01T08:07:27Z</time></trkpt><trkpt lat="43.133727122414044" lon="-0.45771813347439283"><ele>373.33333333333337</ele><time>2026-04-01T08:07:28Z</time></trkpt><trkpt lat="43.13364478146581" lon="-0.457737764915649"><ele>373.6666666666667</ele><time>2026-04-01T08:07:29Z</time></trkpt><trkpt lat="43.133560377643164" lon="-0.45774280297069947"><ele>374.0</ele><time>2026-04-01T08:07:30Z</time></trkpt><trkpt lat="43.133478264930076" lon="-0.4577147390653536"><ele>374.0</ele><time>2026-04-01T08:07:31Z</time></trkpt><trkpt lat="43.13340531299597" lon="-0.4576705782945107"><ele>374.0</ele><time>2026-04-01T08:07:32Z</time></trkpt><trkpt lat="43.133340565350224" lon="-0.4576091279850413"><ele>374.0</ele><time>2026-04-01T08:07:33Z</time></trkpt><trkpt lat="43.133285325491265" lon="-0.4575361058553798"><ele>374.0</ele><time>2026-04-01T08:07:34Z</time></trkpt><trkpt lat="43.133241445494335" lon="-0.4574510441703708"><ele>374.0</ele><time>2026-04-01T08:07:35Z</time></trkpt><trkpt lat="43.13320253035903" lon="-0.45736457212646087"><ele>374.0</ele><time>2026-04-01T08:07:36Z</time></trkpt><trkpt lat="43.133166623799006" lon="-0.4572816806962379"><ele>373.85714285714283</ele><time>2026-04-01T08:07:37Z</time></trkpt><trkpt lat="43.13313054132084" lon="-0.45719680630321324"><ele>373.7142857142857</ele><time>2026-04-01T08:07:38Z</time></trkpt><trkpt lat="43.133095348961824" lon="-0.4571104815585091"><ele>373.57142857142856</ele><time>2026-04-01T08:07:39Z</time></trkpt><trkpt lat="43.133060304758395" lon="-0.45702628309971294"><ele>373.42857142857144</ele><time>2026-04-01T08:07:40Z</time></trkpt><trkpt lat="43.13302950750552" lon="-0.4569335183559799"><ele>373.28571428571433</ele><time>2026-04-01T08:07:41Z</time></trkpt><trkpt lat="43.133013755873286" lon="-0.4568300326058329"><ele>373.14285714285717</ele><time>2026-04-01T08:07:42Z</time></trkpt><trkpt lat="43.13300743788723" lon="-0.45672523021253236"><ele>373.0</ele><time>2026-04-01T08:07:43Z</time></trkpt><trkpt lat="43.13300171797415" lon="-0.456621615807519"><ele>373.66666666666663</ele><time>2026-04-01T08:07:44Z</time></trkpt><trkpt lat="43.132993782026176" lon="-0.45651166583740915"><ele>374.3333333333333</ele><time>2026-04-01T08:07:45Z</time></trkpt><trkpt lat="43.13297907440706" lon="-0.45640001254938695"><ele>375.0</ele><time>2026-04-01T08:07:46Z</time></trkpt><trkpt lat="43.13295613547948" lon="-0.4562904443249872"><ele>375.6666666666667</ele><time>2026-04-01T08:07:47Z</time></trkpt><trkpt lat="43.13293016558327" lon="-0.45618896530007613"><ele>376.33333333333337</ele><time>2026-04-01T08:07:48Z</time></trkpt><trkpt lat="43.13290060922056" lon="-0.4560761590708801"><ele>377.0</ele><time>2026-04-01T08:07:49Z</time></trkpt><trkpt lat="43.132866039492114" lon="-0.4559561791503036"><ele>377.0</ele><time>2026-04-01T08:07:50Z</time></trkpt><trkpt lat="43.13282040622107" lon="-0.45583433441205884"><ele>377.0</ele><time>2026-04-01T08:07:51Z</time></trkpt><trkpt lat="43.1327522464868" lon="-0.4556739549336481"><ele>377.0</ele><time>2026-04-01T08:07:52Z</time></trkpt><trkpt lat="43.13264859362815" lon="-0.45551867454190875"><ele>377.0</ele><time>2026-04-01T08:07:53Z</time></trkpt><trkpt lat="43.13255959508252" lon="-0.4553589166864614"><ele>377.25</ele><time>2026-04-01T08:07:54Z</time></trkpt><trkpt lat="43.13247345910628" lon="-0.45520042976069697"><ele>377.5</ele><time>2026-04-01T08:07:55Z</time></trkpt><trkpt lat="43.13238351944519" lon="-0.4550698950755568"><ele>377.75</ele><time>2026-04-01T08:07:56Z</time></trkpt><trkpt lat="43.13230571866009" lon="-0.4549286785874231"><ele>378.0</ele><time>2026-04-01T08:07:57Z</time></trkpt><trkpt lat="43.132237831738635" lon="-0.45479014812160434"><ele>378.0</ele><time>2026-04-01T08:07:58Z</time></trkpt><trkpt lat="43.13217960334329" lon="-0.45466097076608375"><ele>378.0</ele><time>2026-04-01T08:07:59Z</time></trkpt><trkpt lat="43.13212413701319" lon="-0.4545322591370364"><ele>378.0</ele><time>2026-04-01T08:08:00Z</time></trkpt><trkpt lat="43.13205238520795" lon="-0.454357830307968"><ele>378.0</ele><time>2026-04-01T08:08:01Z</time></trkpt><trkpt lat="43.13201250965276" lon="-0.45420589334672656"><ele>378.79999999999995</ele><time>2026-04-01T08:08:02Z</time></trkpt><trkpt lat="43.131990606077004" lon="-0.4540524857365216"><ele>379.6</ele><time>2026-04-01T08:08:03Z</time></trkpt><trkpt lat="43.13198286333959" lon="-0.45389953454169557"><ele>380.4</ele><time>2026-04-01T08:08:04Z</time></trkpt><trkpt lat="43.131976838047116" lon="-0.45374126025929873"><ele>381.20000000000005</ele><time>2026-04-01T08:08:05Z</time></trkpt><trkpt lat="43.13195978602173" lon="-0.4535972624570273"><ele>382.0</ele><time>2026-04-01T08:08:06Z</time></trkpt><trkpt lat="43.13194253939895" lon="-0.4534564785360497"><ele>382.75</ele><time>2026-04-01T08:08:07Z</time></trkpt><trkpt lat="43.13193093589985" lon="-0.45330271659112636"><ele>383.5</ele><time>2026-04-01T08:08:08Z</time></trkpt><trkpt lat="43.13190447314942" lon="-0.4531147424004514"><ele>384.25</ele><time>2026-04-01T08:08:09Z</time></trkpt><trkpt lat="43.13186510805469" lon="-0.4528910658936984"><ele>385.0</ele><time>2026-04-01T08:08:10Z</time></trkpt><trkpt lat="43.13182404004812" lon="-0.45263752967850573"><ele>385.0</ele><time>2026-04-01T08:08:11Z</time></trkpt><trkpt lat="43.1317837132304" lon="-0.45239731508714487"><ele>385.0</ele><time>2026-04-01T08:08:12Z</time></trkpt><trkpt lat="43.13174671007832" lon="-0.4521575114491196"><ele>385.0</ele><time>2026-04-01T08:08:13Z</time></trkpt><trkpt lat="43.13170949976286" lon="-0.45191608035657393"><ele>384.6666666666667</ele><time>2026-04-01T08:08:14Z</time></trkpt><trkpt lat="43.131669896918446" lon="-0.4516745730443258"><ele>384.33333333333337</ele><time>2026-04-01T08:08:15Z</time></trkpt><trkpt lat="43.13163220800442" lon="-0.4514304240873627"><ele>384.0</ele><time>2026-04-01T08:08:16Z</time></trkpt><trkpt lat="43.13159099983614" lon="-0.4511826431606219"><ele>385.66666666666663</ele><time>2026-04-01T08:08:17Z</time></trkpt><trkpt lat="43.13154715023505" lon="-0.45093883643816624"><ele>387.3333333333333</ele><time>2026-04-01T08:08:18Z</time></trkpt><trkpt lat="43.131495739672204" lon="-0.4506982526777312"><ele>389.0</ele><time>2026-04-01T08:08:19Z</time></trkpt><trkpt lat="43.131432083337046" lon="-0.45046266792244977"><ele>390.66666666666663</ele><time>2026-04-01T08:08:20Z</time></trkpt><trkpt lat="43.131356099484634" lon="-0.4502282793868881"><ele>392.33333333333337</ele><time>2026-04-01T08:08:21Z</time></trkpt><trkpt lat="43.131266638599406" lon="-0.44999703533304725"><ele>394.0</ele><time>2026-04-01T08:08:22Z</time></trkpt><trkpt lat="43.13116015849267" lon="-0.4497658089742122"><ele>394.33333333333337</ele><time>2026-04-01T08:08:23Z</time></trkpt><trkpt lat="43.131061961934634" lon="-0.449533415459712"><ele>394.66666666666663</ele><time>2026-04-01T08:08:24Z</time></trkpt><trkpt lat="43.13096616265189" lon="-0.4492907304206839"><ele>395.0</ele><time>2026-04-01T08:08:25Z</time></trkpt><trkpt lat="43.13087313618356" lon="-0.44905014949074623"><ele>395.0</ele><time>2026-04-01T08:08:26Z</time></trkpt><trkpt lat="43.130781395885556" lon="-0.4488108444008245"><ele>395.0</ele><time>2026-04-01T08:08:27Z</time></trkpt><trkpt lat="43.13069492033167" lon="-0.44857310613526147"><ele>395.0</ele><time>2026-04-01T08:08:28Z</time></trkpt><trkpt lat="43.13061037829925" lon="-0.44833952349563144"><ele>396.3333333333333</ele><time>2026-04-01T08:08:29Z</time></trkpt><trkpt lat="43.13052710192374" lon="-0.44810695569534387"><ele>397.66666666666663</ele><time>2026-04-01T08:08:30Z</time></trkpt><trkpt lat="43.13043774422425" lon="-0.4478599270674098"><ele>399.0</ele><time>2026-04-01T08:08:31Z</time></trkpt><trkpt lat="43.130341103399715" lon="-0.4475992206196706"><ele>399.0</ele><time>2026-04-01T08:08:32Z</time></trkpt><trkpt lat="43.13024310617656" lon="-0.44733752688693024"><ele>399.0</ele><time>2026-04-01T08:08:33Z</time></trkpt><trkpt lat="43.13014401953222" lon="-0.44706677252566257"><ele>399.0</ele><time>2026-04-01T08:08:34Z</time></trkpt><trkpt lat="43.13004236614464" lon="-0.44679155817678523"><ele>399.0</ele><time>2026-04-01T08:08:35Z</time></trkpt><trkpt lat="43.1299347857793" lon="-0.4464990600893007"><ele>399.0</ele><time>2026-04-01T08:08:36Z</time></trkpt><trkpt lat="43.1298340398702" lon="-0.4462218031139613"><ele>403.33333333333337</ele><time>2026-04-01T08:08:37Z</time></trkpt><trkpt lat="43.12973407673832" lon="-0.44594770438312614"><ele>407.6666666666667</ele><time>2026-04-01T08:08:38Z</time></trkpt><trkpt lat="43.12964610041005" lon="-0.44568607115977044"><ele>412.0</ele><time>2026-04-01T08:08:39Z</time></trkpt><trkpt lat="43.12958485191505" lon="-0.44543322079044345"><ele>415.6666666666667</ele><time>2026-04-01T08:08:40Z</time></trkpt><trkpt lat="43.129552237021414" lon="-0.4451696762855564"><ele>419.33333333333337</ele><time>2026-04-01T08:08:41Z</time></trkpt><trkpt lat="43.129555970349585" lon="-0.44492429032497177"><ele>423.0</ele><time>2026-04-01T08:08:42Z</time></trkpt><trkpt lat="43.12957541486039" lon="-0.44470086733528175"><ele>423.33333333333337</ele><time>2026-04-01T08:08:43Z</time></trkpt><trkpt lat="43.129566998989986" lon="-0.4444932613930454"><ele>423.6666666666667</ele><time>2026-04-01T08:08:44Z</time></trkpt><trkpt lat="43.12950330230468" lon="-0.4442842134085816"><ele>424.0</ele><time>2026-04-01T08:08:45Z</time></trkpt><trkpt lat="43.129403299162306" lon="-0.44409158179245"><ele>424.0</ele><time>2026-04-01T08:08:46Z</time></trkpt><trkpt lat="43.12927889890963" lon="-0.4439244393960142"><ele>424.0</ele><time>2026-04-01T08:08:47Z</time></trkpt><trkpt lat="43.12913783183806" lon="-0.4438184548197426"><ele>424.0</ele><time>2026-04-01T08:08:48Z</time></trkpt><trkpt lat="43.128985178634125" lon="-0.44376935638352866"><ele>423.33333333333337</ele><time>2026-04-01T08:08:49Z</time></trkpt><trkpt lat="43.128820754988816" lon="-0.4437539297954603"><ele>422.66666666666663</ele><time>2026-04-01T08:08:50Z</time></trkpt><trkpt lat="43.12865178165488" lon="-0.44376306419587497"><ele>422.0</ele><time>2026-04-01T08:08:51Z</time></trkpt><trkpt lat="43.12848667832282" lon="-0.44378507377186405"><ele>422.0</ele><time>2026-04-01T08:08:52Z</time></trkpt><trkpt lat="43.12831341170473" lon="-0.4438023646749967"><ele>422.0</ele><time>2026-04-01T08:08:53Z</time></trkpt><trkpt lat="43.12813203222751" lon="-0.44380655398542307"><ele>422.0</ele><time>2026-04-01T08:08:54Z</time></trkpt><trkpt lat="43.12795853892385" lon="-0.4437886263286605"><ele>422.0</ele><time>2026-04-01T08:08:55Z</time></trkpt><trkpt lat="43.1277991380258" lon="-0.44373577157088556"><ele>422.0</ele><time>2026-04-01T08:08:56Z</time></trkpt><trkpt lat="43.12765169127674" lon="-0.443638452097708"><ele>422.0</ele><time>2026-04-01T08:08:57Z</time></trkpt><trkpt lat="43.12750678694126" lon="-0.44351210572980826"><ele>425.0</ele><time>2026-04-01T08:08:58Z</time></trkpt><trkpt lat="43.12735945778049" lon="-0.4433808733118979"><ele>428.0</ele><time>2026-04-01T08:08:59Z</time></trkpt><trkpt lat="43.12721532899722" lon="-0.4432556836458702"><ele>431.0</ele><time>2026-04-01T08:09:00Z</time></trkpt><trkpt lat="43.1270841422186" lon="-0.4431428469201384"><ele>431.0</ele><time>2026-04-01T08:09:01Z</time></trkpt><trkpt lat="43.12695302600717" lon="-0.44305809906583604"><ele>431.0</ele><time>2026-04-01T08:09:02Z</time></trkpt><trkpt lat="43.126810544872" lon="-0.4430083531842292"><ele>431.0</ele><time>2026-04-01T08:09:03Z</time></trkpt><trkpt lat="43.126655565615934" lon="-0.442987187011713"><ele>431.0</ele><time>2026-04-01T08:09:04Z</time></trkpt><trkpt lat="43.12648376504881" lon="-0.4429941076845456"><ele>432.3333333333333</ele><time>2026-04-01T08:09:05Z</time></trkpt><trkpt lat="43.12631022908699" lon="-0.4430108823722211"><ele>433.66666666666663</ele><time>2026-04-01T08:09:06Z</time></trkpt><trkpt lat="43.126130932136036" lon="-0.44303957402412625"><ele>435.0</ele><time>2026-04-01T08:09:07Z</time></trkpt><trkpt lat="43.125944469552145" lon="-0.443061104342819"><ele>435.0</ele><time>2026-04-01T08:09:08Z</time></trkpt><trkpt lat="43.125749192051224" lon="-0.4430644337413105"><ele>435.0</ele><time>2026-04-01T08:09:09Z</time></trkpt><trkpt lat="43.12555157147433" lon="-0.44302840106030966"><ele>435.0</ele><time>2026-04-01T08:09:10Z</time></trkpt><trkpt lat="43.12535649388259" lon="-0.44297034019412723"><ele>431.0</ele><time>2026-04-01T08:09:11Z</time></trkpt><trkpt lat="43.12516782329335" lon="-0.44289337395224326"><ele>427.0</ele><time>2026-04-01T08:09:12Z</time></trkpt><trkpt lat="43.1249822986771" lon="-0.442792858343283"><ele>423.0</ele><time>2026-04-01T08:09:13Z</time></trkpt><trkpt lat="43.124795738591544" lon="-0.4426851542215127"><ele>423.0</ele><time>2026-04-01T08:09:14Z</time></trkpt><trkpt lat="43.12460186376133" lon="-0.4425796088930461"><ele>423.0</ele><time>2026-04-01T08:09:15Z</time></trkpt><trkpt lat="43.12440881126389" lon="-0.4424813448056266"><ele>423.0</ele><time>2026-04-01T08:09:16Z</time></trkpt><trkpt lat="43.1242100678839" lon="-0.44238755886949666"><ele>426.33333333333337</ele><time>2026-04-01T08:09:17Z</time></trkpt><trkpt lat="43.12400620027307" lon="-0.44229452742131947"><ele>429.6666666666667</ele><time>2026-04-01T08:09:18Z</time></trkpt><trkpt lat="43.12380023269677" lon="-0.4421978423101231"><ele>433.0</ele><time>2026-04-01T08:09:19Z</time></trkpt><trkpt lat="43.12359570070174" lon="-0.4421179571154402"><ele>427.33333333333337</ele><time>2026-04-01T08:09:20Z</time></trkpt><trkpt lat="43.123387568281046" lon="-0.44206301294788825"><ele>421.66666666666663</ele><time>2026-04-01T08:09:21Z</time></trkpt><trkpt lat="43.12318383897388" lon="-0.44203630145022005"><ele>416.0</ele><time>2026-04-01T08:09:22Z</time></trkpt><trkpt lat="43.122969418570875" lon="-0.4420032406939564"><ele>416.0</ele><time>2026-04-01T08:09:23Z</time></trkpt><trkpt lat="43.12276612415475" lon="-0.44196178029516375"><ele>416.0</ele><time>2026-04-01T08:09:24Z</time></trkpt><trkpt lat="43.12256360424277" lon="-0.44189639783003587"><ele>416.0</ele><time>2026-04-01T08:09:25Z</time></trkpt><trkpt lat="43.12236515717113" lon="-0.44181159550437166"><ele>418.3333333333333</ele><time>2026-04-01T08:09:26Z</time></trkpt><trkpt lat="43.12216985640704" lon="-0.44171481124603357"><ele>420.66666666666663</ele><time>2026-04-01T08:09:27Z</time></trkpt><trkpt lat="43.12197491215542" lon="-0.44160814809022897"><ele>423.0</ele><time>2026-04-01T08:09:28Z</time></trkpt><trkpt lat="43.12177677513806" lon="-0.44149386930434564"><ele>423.0</ele><time>2026-04-01T08:09:29Z</time></trkpt><trkpt lat="43.121581247050095" lon="-0.44139341559938217"><ele>423.0</ele><time>2026-04-01T08:09:30Z</time></trkpt><trkpt lat="43.12138005463545" lon="-0.4413071515865369"><ele>423.0</ele><time>2026-04-01T08:09:31Z</time></trkpt><trkpt lat="43.121178217206115" lon="-0.4412357390748416"><ele>422.66666666666663</ele><time>2026-04-01T08:09:32Z</time></trkpt><trkpt lat="43.12097777769889" lon="-0.4411737532375554"><ele>422.3333333333333</ele><time>2026-04-01T08:09:33Z</time></trkpt><trkpt lat="43.12077891789319" lon="-0.44112392796650307"><ele>422.0</ele><time>2026-04-01T08:09:34Z</time></trkpt><trkpt lat="43.12057914571465" lon="-0.4410766925291927"><ele>422.0</ele><time>2026-04-01T08:09:35Z</time></trkpt><trkpt lat="43.12039038363362" lon="-0.4410104293917011"><ele>422.0</ele><time>2026-04-01T08:09:36Z</time></trkpt><trkpt lat="43.120216717922276" lon="-0.44091029146373717"><ele>422.0</ele><time>2026-04-01T08:09:37Z</time></trkpt><trkpt lat="43.12006402622157" lon="-0.4407808493212584"><ele>422.0</ele><time>2026-04-01T08:09:38Z</time></trkpt><trkpt lat="43.119924478907826" lon="-0.4406264139497427"><ele>422.0</ele><time>2026-04-01T08:09:39Z</time></trkpt><trkpt lat="43.11980569320792" lon="-0.4404667552827862"><ele>422.0</ele><time>2026-04-01T08:09:40Z</time></trkpt><trkpt lat="43.119691438531" lon="-0.4403151760775457"><ele>418.66666666666663</ele><time>2026-04-01T08:09:41Z</time></trkpt><trkpt lat="43.11956000849981" lon="-0.440193297713469"><ele>415.33333333333337</ele><time>2026-04-01T08:09:42Z</time></trkpt><trkpt lat="43.11940508637704" lon="-0.4401469244503608"><ele>412.0</ele><time>2026-04-01T08:09:43Z</time></trkpt><trkpt lat="43.11924710448321" lon="-0.4400798307047219"><ele>412.0</ele><time>2026-04-01T08:09:44Z</time></trkpt><trkpt lat="43.11909751589642" lon="-0.4400450882812307"><ele>412.0</ele><time>2026-04-01T08:09:45Z</time></trkpt><trkpt lat="43.11896215261369" lon="-0.43998018828416835"><ele>412.0</ele><time>2026-04-01T08:09:46Z</time></trkpt><trkpt lat="43.11883781624622" lon="-0.43987098705353334"><ele>412.0</ele><time>2026-04-01T08:09:47Z</time></trkpt><trkpt lat="43.118712154565415" lon="-0.43971555223589226"><ele>411.33333333333337</ele><time>2026-04-01T08:09:48Z</time></trkpt><trkpt lat="43.1185923354005" lon="-0.4395311282277463"><ele>410.66666666666663</ele><time>2026-04-01T08:09:49Z</time></trkpt><trkpt lat="43.11845053551039" lon="-0.4393454397868331"><ele>410.0</ele><time>2026-04-01T08:09:50Z</time></trkpt><trkpt lat="43.11828346173386" lon="-0.43918737722749024"><ele>408.66666666666663</ele><time>2026-04-01T08:09:51Z</time></trkpt><trkpt lat="43.11811345101107" lon="-0.4390508267916547"><ele>407.33333333333337</ele><time>2026-04-01T08:09:52Z</time></trkpt><trkpt lat="43.11794524055602" lon="-0.4389201401827492"><ele>406.0</ele><time>2026-04-01T08:09:53Z</time></trkpt><trkpt lat="43.11777910012946" lon="-0.438791703900254"><ele>406.0</ele><time>2026-04-01T08:09:54Z</time></trkpt><trkpt lat="43.11761704295375" lon="-0.43866185974796185"><ele>406.0</ele><time>2026-04-01T08:09:55Z</time></trkpt><trkpt lat="43.11745765931364" lon="-0.43853255145791303"><ele>406.0</ele><time>2026-04-01T08:09:56Z</time></trkpt><trkpt lat="43.11730571313651" lon="-0.43840289444475156"><ele>405.0</ele><time>2026-04-01T08:09:57Z</time></trkpt><trkpt lat="43.11716149821912" lon="-0.4382726939345417"><ele>404.0</ele><time>2026-04-01T08:09:58Z</time></trkpt><trkpt lat="43.11701728158742" lon="-0.43815407087330777"><ele>403.0</ele><time>2026-04-01T08:09:59Z</time></trkpt><trkpt lat="43.11686271618945" lon="-0.4380637902828878"><ele>403.0</ele><time>2026-04-01T08:10:00Z</time></trkpt><trkpt lat="43.11670320927051" lon="-0.438004840840375"><ele>403.0</ele><time>2026-04-01T08:10:01Z</time></trkpt><trkpt lat="43.11654374616698" lon="-0.43802343708921315"><ele>403.0</ele><time>2026-04-01T08:10:02Z</time></trkpt><trkpt lat="43.11639505358592" lon="-0.43805447755715965"><ele>404.25</ele><time>2026-04-01T08:10:03Z</time></trkpt><trkpt lat="43.11624991515046" lon="-0.438109724379235"><ele>405.5</ele><time>2026-04-01T08:10:04Z</time></trkpt><trkpt lat="43.11610608995389" lon="-0.4381509710224263"><ele>406.75</ele><time>2026-04-01T08:10:05Z</time></trkpt><trkpt lat="43.11596921946141" lon="-0.43822121396789554"><ele>408.0</ele><time>2026-04-01T08:10:06Z</time></trkpt><trkpt lat="43.11583402559905" lon="-0.4382643042664736"><ele>409.5</ele><time>2026-04-01T08:10:07Z</time></trkpt><trkpt lat="43.115697328641104" lon="-0.4382637595480164"><ele>411.0</ele><time>2026-04-01T08:10:08Z</time></trkpt><trkpt lat="43.11555794595505" lon="-0.43823596116661195"><ele>412.5</ele><time>2026-04-01T08:10:09Z</time></trkpt><trkpt lat="43.11541534152134" lon="-0.4381712008825653"><ele>414.0</ele><time>2026-04-01T08:10:10Z</time></trkpt><trkpt lat="43.11527097834933" lon="-0.438086203252212"><ele>414.0</ele><time>2026-04-01T08:10:11Z</time></trkpt><trkpt lat="43.11513308869236" lon="-0.4379828597511699"><ele>414.0</ele><time>2026-04-01T08:10:12Z</time></trkpt><trkpt lat="43.11500323091792" lon="-0.4378735545339157"><ele>414.0</ele><time>2026-04-01T08:10:13Z</time></trkpt><trkpt lat="43.11487491594132" lon="-0.4377668653371124"><ele>410.66666666666663</ele><time>2026-04-01T08:10:14Z</time></trkpt><trkpt lat="43.11475074419599" lon="-0.4376676722064525"><ele>407.3333333333333</ele><time>2026-04-01T08:10:15Z</time></trkpt><trkpt lat="43.114619233519235" lon="-0.4375670536671357"><ele>404.0</ele><time>2026-04-01T08:10:16Z</time></trkpt><trkpt lat="43.114474731786146" lon="-0.4374709216356926"><ele>404.0</ele><time>2026-04-01T08:10:17Z</time></trkpt><trkpt lat="43.1143115205454" lon="-0.43739129150872175"><ele>404.0</ele><time>2026-04-01T08:10:18Z</time></trkpt><trkpt lat="43.11413565270224" lon="-0.43733746462971923"><ele>404.0</ele><time>2026-04-01T08:10:19Z</time></trkpt><trkpt lat="43.11394563206484" lon="-0.43729927337494157"><ele>404.0</ele><time>2026-04-01T08:10:20Z</time></trkpt><trkpt lat="43.1137454107501" lon="-0.43727488732932834"><ele>404.0</ele><time>2026-04-01T08:10:21Z</time></trkpt><trkpt lat="43.113541736361825" lon="-0.4372547058665972"><ele>404.0</ele><time>2026-04-01T08:10:22Z</time></trkpt><trkpt lat="43.11333658757745" lon="-0.4372365561116269"><ele>402.3333333333333</ele><time>2026-04-01T08:10:23Z</time></trkpt><trkpt lat="43.11312104222383" lon="-0.4372203697029991"><ele>400.66666666666663</ele><time>2026-04-01T08:10:24Z</time></trkpt><trkpt lat="43.11290625586889" lon="-0.43721713680695845"><ele>399.0</ele><time>2026-04-01T08:10:25Z</time></trkpt><trkpt lat="43.11269284109651" lon="-0.4372332073919645"><ele>399.0</ele><time>2026-04-01T08:10:26Z</time></trkpt><trkpt lat="43.11248022588529" lon="-0.4372605140044318"><ele>399.0</ele><time>2026-04-01T08:10:27Z</time></trkpt><trkpt lat="43.11227415809915" lon="-0.4372914867246101"><ele>399.0</ele><time>2026-04-01T08:10:28Z</time></trkpt><trkpt lat="43.1120767449817" lon="-0.4373188379702322"><ele>398.33333333333337</ele><time>2026-04-01T08:10:29Z</time></trkpt><trkpt lat="43.11189119693819" lon="-0.43733945266306606"><ele>397.6666666666667</ele><time>2026-04-01T08:10:30Z</time></trkpt><trkpt lat="43.11171741463485" lon="-0.43736108788050926"><ele>397.0</ele><time>2026-04-01T08:10:31Z</time></trkpt><trkpt lat="43.111549314399866" lon="-0.43738148666023074"><ele>397.0</ele><time>2026-04-01T08:10:32Z</time></trkpt><trkpt lat="43.111395177063145" lon="-0.43739922660288166"><ele>397.0</ele><time>2026-04-01T08:10:33Z</time></trkpt><trkpt lat="43.11124450424281" lon="-0.4374239790689301"><ele>397.0</ele><time>2026-04-01T08:10:34Z</time></trkpt><trkpt lat="43.11110085710076" lon="-0.43745433671445205"><ele>397.0</ele><time>2026-04-01T08:10:35Z</time></trkpt><trkpt lat="43.1109662028181" lon="-0.4374797465435428"><ele>397.0</ele><time>2026-04-01T08:10:36Z</time></trkpt><trkpt lat="43.11084170412451" lon="-0.4374892635668318"><ele>397.0</ele><time>2026-04-01T08:10:37Z</time></trkpt><trkpt lat="43.11072792975528" lon="-0.4374734797574511"><ele>397.0</ele><time>2026-04-01T08:10:38Z</time></trkpt><trkpt lat="43.11062487129207" lon="-0.4374335948742326"><ele>397.5</ele><time>2026-04-01T08:10:39Z</time></trkpt><trkpt lat="43.1105284276395" lon="-0.43735991583605605"><ele>398.0</ele><time>2026-04-01T08:10:40Z</time></trkpt><trkpt lat="43.11043589790549" lon="-0.4372474752370793"><ele>398.5</ele><time>2026-04-01T08:10:41Z</time></trkpt><trkpt lat="43.11034642685381" lon="-0.43711732481077004"><ele>399.0</ele><time>2026-04-01T08:10:42Z</time></trkpt><trkpt lat="43.110265639555685" lon="-0.4369796708195913"><ele>399.75</ele><time>2026-04-01T08:10:43Z</time></trkpt><trkpt lat="43.11018799482346" lon="-0.43682749154351713"><ele>400.5</ele><time>2026-04-01T08:10:44Z</time></trkpt><trkpt lat="43.11011925291703" lon="-0.4366695047806843"><ele>401.25</ele><time>2026-04-01T08:10:45Z</time></trkpt><trkpt lat="43.110075027031144" lon="-0.4365094543188924"><ele>402.0</ele><time>2026-04-01T08:10:46Z</time></trkpt><trkpt lat="43.110055955735234" lon="-0.4363470550317938"><ele>402.20000000000005</ele><time>2026-04-01T08:10:47Z</time></trkpt><trkpt lat="43.110048719649846" lon="-0.4362032824585807"><ele>402.4</ele><time>2026-04-01T08:10:48Z</time></trkpt><trkpt lat="43.11002584519166" lon="-0.43608231661297464"><ele>402.6</ele><time>2026-04-01T08:10:49Z</time></trkpt><trkpt lat="43.109975875209194" lon="-0.4359888847854407"><ele>402.79999999999995</ele><time>2026-04-01T08:10:50Z</time></trkpt><trkpt lat="43.10990124668189" lon="-0.43589811492419617"><ele>403.0</ele><time>2026-04-01T08:10:51Z</time></trkpt><trkpt lat="43.10980232195625" lon="-0.43582248365225484"><ele>404.75</ele><time>2026-04-01T08:10:52Z</time></trkpt><trkpt lat="43.109685720104146" lon="-0.43576684716217884"><ele>406.5</ele><time>2026-04-01T08:10:53Z</time></trkpt><trkpt lat="43.10955972389755" lon="-0.4357252918060704"><ele>408.25</ele><time>2026-04-01T08:10:54Z</time></trkpt><trkpt lat="43.10942117707681" lon="-0.43568663052997847"><ele>410.0</ele><time>2026-04-01T08:10:55Z</time></trkpt><trkpt lat="43.10927871719993" lon="-0.43564090324722615"><ele>410.0</ele><time>2026-04-01T08:10:56Z</time></trkpt><trkpt lat="43.10913102102567" lon="-0.435588454910071"><ele>410.0</ele><time>2026-04-01T08:10:57Z</time></trkpt><trkpt lat="43.108980665880736" lon="-0.43553554519876847"><ele>410.0</ele><time>2026-04-01T08:10:58Z</time></trkpt><trkpt lat="43.10882649374413" lon="-0.435487534560702"><ele>410.0</ele><time>2026-04-01T08:10:59Z</time></trkpt><trkpt lat="43.1086827212201" lon="-0.43544516046926246"><ele>410.0</ele><time>2026-04-01T08:11:00Z</time></trkpt><trkpt lat="43.10854781193528" lon="-0.435402621717215"><ele>410.0</ele><time>2026-04-01T08:11:01Z</time></trkpt><trkpt lat="43.10841649347428" lon="-0.4353623937850003"><ele>410.0</ele><time>2026-04-01T08:11:02Z</time></trkpt><trkpt lat="43.10827917264194" lon="-0.4353269888457236"><ele>410.0</ele><time>2026-04-01T08:11:03Z</time></trkpt><trkpt lat="43.108129537150205" lon="-0.4353108650289254"><ele>410.0</ele><time>2026-04-01T08:11:04Z</time></trkpt><trkpt lat="43.107990188310595" lon="-0.43532230907212704"><ele>410.0</ele><time>2026-04-01T08:11:05Z</time></trkpt><trkpt lat="43.107848920228626" lon="-0.4353558335090606"><ele>410.0</ele><time>2026-04-01T08:11:06Z</time></trkpt><trkpt lat="43.107715703445436" lon="-0.4353993056677925"><ele>410.0</ele><time>2026-04-01T08:11:07Z</time></trkpt><trkpt lat="43.107588385117026" lon="-0.4354418980086308"><ele>410.0</ele><time>2026-04-01T08:11:08Z</time></trkpt><trkpt lat="43.10746903441463" lon="-0.43547678724623806"><ele>410.0</ele><time>2026-04-01T08:11:09Z</time></trkpt><trkpt lat="43.10736007821147" lon="-0.4354995943896975"><ele>410.0</ele><time>2026-04-01T08:11:10Z</time></trkpt><trkpt lat="43.107259353760334" lon="-0.43552467257619537"><ele>411.0</ele><time>2026-04-01T08:11:11Z</time></trkpt><trkpt lat="43.10716446224902" lon="-0.4355510335170078"><ele>412.0</ele><time>2026-04-01T08:11:12Z</time></trkpt><trkpt lat="43.10708083595558" lon="-0.43558316504420286"><ele>413.0</ele><time>2026-04-01T08:11:13Z</time></trkpt><trkpt lat="43.106994481783595" lon="-0.43562510413949007"><ele>414.0</ele><time>2026-04-01T08:11:14Z</time></trkpt><trkpt lat="43.106902668076984" lon="-0.4356748201082866"><ele>415.0</ele><time>2026-04-01T08:11:15Z</time></trkpt><trkpt lat="43.10682040316796" lon="-0.4357127778879503"><ele>415.0</ele><time>2026-04-01T08:11:16Z</time></trkpt><trkpt lat="43.106738514022574" lon="-0.43574458066881344"><ele>415.0</ele><time>2026-04-01T08:11:17Z</time></trkpt><trkpt lat="43.10664237904612" lon="-0.43577069455319406"><ele>415.0</ele><time>2026-04-01T08:11:18Z</time></trkpt><trkpt lat="43.106532937566506" lon="-0.4357796512179673"><ele>415.0</ele><time>2026-04-01T08:11:19Z</time></trkpt><trkpt lat="43.10642807049596" lon="-0.4357677471175486"><ele>415.0</ele><time>2026-04-01T08:11:20Z</time></trkpt><trkpt lat="43.106318485451055" lon="-0.4357457327200998"><ele>414.6666666666667</ele><time>2026-04-01T08:11:21Z</time></trkpt><trkpt lat="43.106186532541685" lon="-0.4357220235928565"><ele>414.33333333333337</ele><time>2026-04-01T08:11:22Z</time></trkpt><trkpt lat="43.10602672959912" lon="-0.43569660920294934"><ele>414.0</ele><time>2026-04-01T08:11:23Z</time></trkpt><trkpt lat="43.10586752250876" lon="-0.4356669538332456"><ele>414.33333333333337</ele><time>2026-04-01T08:11:24Z</time></trkpt><trkpt lat="43.10570523656613" lon="-0.4356303516740328"><ele>414.6666666666667</ele><time>2026-04-01T08:11:25Z</time></trkpt><trkpt lat="43.10554603983659" lon="-0.43559678074984004"><ele>415.0</ele><time>2026-04-01T08:11:26Z</time></trkpt><trkpt lat="43.10538691964698" lon="-0.4355718333933517"><ele>415.0</ele><time>2026-04-01T08:11:27Z</time></trkpt><trkpt lat="43.10522971758535" lon="-0.4355544672263681"><ele>415.0</ele><time>2026-04-01T08:11:28Z</time></trkpt><trkpt lat="43.105072144484716" lon="-0.43554228762512676"><ele>415.0</ele><time>2026-04-01T08:11:29Z</time></trkpt><trkpt lat="43.104911152059344" lon="-0.4355275469454613"><ele>414.6666666666667</ele><time>2026-04-01T08:11:30Z</time></trkpt><trkpt lat="43.10475251517607" lon="-0.4355128105788552"><ele>414.33333333333337</ele><time>2026-04-01T08:11:31Z</time></trkpt><trkpt lat="43.10459394283519" lon="-0.43549497504350226"><ele>414.0</ele><time>2026-04-01T08:11:32Z</time></trkpt><trkpt lat="43.10443949114042" lon="-0.4354687503924229"><ele>414.0</ele><time>2026-04-01T08:11:33Z</time></trkpt><trkpt lat="43.10428585141147" lon="-0.4354329489407219"><ele>414.0</ele><time>2026-04-01T08:11:34Z</time></trkpt><trkpt lat="43.104140794167364" lon="-0.43540198569915006"><ele>414.0</ele><time>2026-04-01T08:11:35Z</time></trkpt><trkpt lat="43.10402711935708" lon="-0.435379390343522"><ele>414.0</ele><time>2026-04-01T08:11:36Z</time></trkpt><trkpt lat="43.10395203608851" lon="-0.4353656044456515"><ele>414.0</ele><time>2026-04-01T08:11:37Z</time></trkpt><trkpt lat="43.10381630916665" lon="-0.43537614273797803"><ele>414.0</ele><time>2026-04-01T08:11:39Z</time></trkpt><trkpt lat="43.103717107422206" lon="-0.43535659075031236"><ele>414.0</ele><time>2026-04-01T08:11:40Z</time></trkpt><trkpt lat="43.10361410571935" lon="-0.4352482970474209"><ele>414.0</ele><time>2026-04-01T08:11:41Z</time></trkpt><trkpt lat="43.10348525341143" lon="-0.4351576724499895"><ele>414.0</ele><time>2026-04-01T08:11:42Z</time></trkpt><trkpt lat="43.103329612597236" lon="-0.4350740824367677"><ele>414.0</ele><time>2026-04-01T08:11:43Z</time></trkpt><trkpt lat="43.103169081163884" lon="-0.4350126238094017"><ele>414.0</ele><time>2026-04-01T08:11:44Z</time></trkpt><trkpt lat="43.103002692643805" lon="-0.43496813790785677"><ele>415.0</ele><time>2026-04-01T08:11:45Z</time></trkpt><trkpt lat="43.1028305855899" lon="-0.43494171761734307"><ele>416.0</ele><time>2026-04-01T08:11:46Z</time></trkpt><trkpt lat="43.10265101512113" lon="-0.434924196221319"><ele>417.0</ele><time>2026-04-01T08:11:47Z</time></trkpt><trkpt lat="43.10247093984301" lon="-0.43490396806315645"><ele>416.0</ele><time>2026-04-01T08:11:48Z</time></trkpt><trkpt lat="43.10229591510367" lon="-0.43487461075561873"><ele>415.0</ele><time>2026-04-01T08:11:49Z</time></trkpt><trkpt lat="43.10213795216737" lon="-0.43482908404123455"><ele>414.0</ele><time>2026-04-01T08:11:50Z</time></trkpt><trkpt lat="43.10198885660323" lon="-0.4347827909394817"><ele>414.0</ele><time>2026-04-01T08:11:51Z</time></trkpt><trkpt lat="43.10184716064984" lon="-0.43472015241463585"><ele>414.0</ele><time>2026-04-01T08:11:52Z</time></trkpt><trkpt lat="43.101704597602904" lon="-0.4346403885759954"><ele>414.0</ele><time>2026-04-01T08:11:53Z</time></trkpt><trkpt lat="43.10156201176708" lon="-0.4345460884817227"><ele>413.66666666666663</ele><time>2026-04-01T08:11:54Z</time></trkpt><trkpt lat="43.101418544665606" lon="-0.43445397947768116"><ele>413.3333333333333</ele><time>2026-04-01T08:11:55Z</time></trkpt><trkpt lat="43.10127401977268" lon="-0.43436743777589903"><ele>413.0</ele><time>2026-04-01T08:11:56Z</time></trkpt><trkpt lat="43.101141474424864" lon="-0.4342923804620977"><ele>413.0</ele><time>2026-04-01T08:11:57Z</time></trkpt><trkpt lat="43.101016807338695" lon="-0.4342156653603116"><ele>413.0</ele><time>2026-04-01T08:11:58Z</time></trkpt><trkpt lat="43.10091993731432" lon="-0.4340857830985957"><ele>413.0</ele><time>2026-04-01T08:11:59Z</time></trkpt><trkpt lat="43.100794322636474" lon="-0.43399260420582586"><ele>413.0</ele><time>2026-04-01T08:12:00Z</time></trkpt><trkpt lat="43.100668970168186" lon="-0.43384595312346325"><ele>413.66666666666663</ele><time>2026-04-01T08:12:01Z</time></trkpt><trkpt lat="43.10052823669651" lon="-0.4336932872727941"><ele>414.33333333333337</ele><time>2026-04-01T08:12:02Z</time></trkpt><trkpt lat="43.10037807750463" lon="-0.4335501737694937"><ele>415.0</ele><time>2026-04-01T08:12:03Z</time></trkpt><trkpt lat="43.100221283910095" lon="-0.4334438115335776"><ele>415.0</ele><time>2026-04-01T08:12:04Z</time></trkpt><trkpt lat="43.10005342390946" lon="-0.43337660787483395"><ele>415.0</ele><time>2026-04-01T08:12:05Z</time></trkpt><trkpt lat="43.09987927402093" lon="-0.43333927511107945"><ele>415.0</ele><time>2026-04-01T08:12:06Z</time></trkpt><trkpt lat="43.09970467991222" lon="-0.43330750776999444"><ele>416.33333333333337</ele><time>2026-04-01T08:12:07Z</time></trkpt><trkpt lat="43.09952683595999" lon="-0.43326598510433995"><ele>417.66666666666663</ele><time>2026-04-01T08:12:08Z</time></trkpt><trkpt lat="43.09934611125004" lon="-0.43320814909152655"><ele>419.0</ele><time>2026-04-01T08:12:09Z</time></trkpt><trkpt lat="43.09915437540413" lon="-0.4331479461367924"><ele>421.0</ele><time>2026-04-01T08:12:10Z</time></trkpt><trkpt lat="43.098953583276206" lon="-0.4330987875954889"><ele>423.0</ele><time>2026-04-01T08:12:11Z</time></trkpt><trkpt lat="43.09875959041881" lon="-0.43306303806846463"><ele>425.0</ele><time>2026-04-01T08:12:12Z</time></trkpt><trkpt lat="43.09856672848106" lon="-0.43303915084340533"><ele>425.0</ele><time>2026-04-01T08:12:13Z</time></trkpt><trkpt lat="43.098365985852546" lon="-0.43302204856635257"><ele>425.0</ele><time>2026-04-01T08:12:14Z</time></trkpt><trkpt lat="43.09816126294834" lon="-0.4330095503815927"><ele>425.0</ele><time>2026-04-01T08:12:15Z</time></trkpt><trkpt lat="43.097956732867495" lon="-0.43299279903869875"><ele>424.3333333333333</ele><time>2026-04-01T08:12:16Z</time></trkpt><trkpt lat="43.09774646840812" lon="-0.4329749271257658"><ele>423.66666666666663</ele><time>2026-04-01T08:12:17Z</time></trkpt><trkpt lat="43.097530981912705" lon="-0.4329558686405906"><ele>423.0</ele><time>2026-04-01T08:12:18Z</time></trkpt><trkpt lat="43.097311487639914" lon="-0.4329357859370332"><ele>420.0</ele><time>2026-04-01T08:12:19Z</time></trkpt><trkpt lat="43.09708664702225" lon="-0.4329159362687567"><ele>417.0</ele><time>2026-04-01T08:12:20Z</time></trkpt><trkpt lat="43.09685738984276" lon="-0.4328988057062572"><ele>417.0</ele><time>2026-04-01T08:12:21Z</time></trkpt><trkpt lat="43.096615945630155" lon="-0.4328839747277104"><ele>417.0</ele><time>2026-04-01T08:12:22Z</time></trkpt><trkpt lat="43.09638215333271" lon="-0.4328685206713926"><ele>417.0</ele><time>2026-04-01T08:12:23Z</time></trkpt><trkpt lat="43.09614989875683" lon="-0.4328507835004062"><ele>417.0</ele><time>2026-04-01T08:12:24Z</time></trkpt><trkpt lat="43.09591577163294" lon="-0.4328317998488431"><ele>416.5</ele><time>2026-04-01T08:12:25Z</time></trkpt><trkpt lat="43.09568138788245" lon="-0.4328163156698312"><ele>416.0</ele><time>2026-04-01T08:12:26Z</time></trkpt><trkpt lat="43.09544396014852" lon="-0.43279743569437357"><ele>416.0</ele><time>2026-04-01T08:12:27Z</time></trkpt><trkpt lat="43.09520808106116" lon="-0.43277367685584556"><ele>416.0</ele><time>2026-04-01T08:12:28Z</time></trkpt><trkpt lat="43.09497115501666" lon="-0.43274674191248846"><ele>416.0</ele><time>2026-04-01T08:12:29Z</time></trkpt><trkpt lat="43.094735726792585" lon="-0.43271537150858785"><ele>416.0</ele><time>2026-04-01T08:12:30Z</time></trkpt><trkpt lat="43.09449963916029" lon="-0.43267000338637285"><ele>416.0</ele><time>2026-04-01T08:12:31Z</time></trkpt><trkpt lat="43.09426763505044" lon="-0.432602831658943"><ele>416.0</ele><time>2026-04-01T08:12:32Z</time></trkpt><trkpt lat="43.09404080098279" lon="-0.43251490366052997"><ele>416.0</ele><time>2026-04-01T08:12:33Z</time></trkpt><trkpt lat="43.093812509434265" lon="-0.4324090397405822"><ele>416.0</ele><time>2026-04-01T08:12:34Z</time></trkpt><trkpt lat="43.093588705283494" lon="-0.4322872914714193"><ele>416.0</ele><time>2026-04-01T08:12:35Z</time></trkpt><trkpt lat="43.093373396677904" lon="-0.43215297768114486"><ele>416.0</ele><time>2026-04-01T08:12:36Z</time></trkpt><trkpt lat="43.0931649638183" lon="-0.43200520444201856"><ele>417.5</ele><time>2026-04-01T08:12:37Z</time></trkpt><trkpt lat="43.092961147542425" lon="-0.4318406058987107"><ele>419.0</ele><time>2026-04-01T08:12:38Z</time></trkpt><trkpt lat="43.09276436193252" lon="-0.4316607510759815"><ele>419.0</ele><time>2026-04-01T08:12:39Z</time></trkpt><trkpt lat="43.092574577823285" lon="-0.4314727986919126"><ele>419.0</ele><time>2026-04-01T08:12:40Z</time></trkpt><trkpt lat="43.092383240878874" lon="-0.4312811538082109"><ele>419.0</ele><time>2026-04-01T08:12:41Z</time></trkpt><trkpt lat="43.09218830263435" lon="-0.43110516933592213"><ele>419.0</ele><time>2026-04-01T08:12:42Z</time></trkpt><trkpt lat="43.09198548350369" lon="-0.430951213347427"><ele>419.0</ele><time>2026-04-01T08:12:43Z</time></trkpt><trkpt lat="43.0917814102997" lon="-0.43081483931815623"><ele>419.0</ele><time>2026-04-01T08:12:44Z</time></trkpt><trkpt lat="43.091583449518296" lon="-0.43068882534585706"><ele>419.0</ele><time>2026-04-01T08:12:45Z</time></trkpt><trkpt lat="43.09139971985007" lon="-0.43056416657815755"><ele>419.3333333333333</ele><time>2026-04-01T08:12:46Z</time></trkpt><trkpt lat="43.091236891303765" lon="-0.4304370981796971"><ele>419.66666666666663</ele><time>2026-04-01T08:12:47Z</time></trkpt><trkpt lat="43.09109851809862" lon="-0.4303078152630074"><ele>420.0</ele><time>2026-04-01T08:12:48Z</time></trkpt><trkpt lat="43.09096977450144" lon="-0.4301741140054651"><ele>420.0</ele><time>2026-04-01T08:12:49Z</time></trkpt><trkpt lat="43.090852934528215" lon="-0.4300440103476548"><ele>420.0</ele><time>2026-04-01T08:12:50Z</time></trkpt><trkpt lat="43.09074297231173" lon="-0.42992449577087505"><ele>420.0</ele><time>2026-04-01T08:12:51Z</time></trkpt><trkpt lat="43.09063949215279" lon="-0.429835156305152"><ele>420.0</ele><time>2026-04-01T08:12:52Z</time></trkpt><trkpt lat="43.09054242885927" lon="-0.4297752696998704"><ele>420.0</ele><time>2026-04-01T08:12:53Z</time></trkpt><trkpt lat="43.09046217728654" lon="-0.42970352179688365"><ele>420.0</ele><time>2026-04-01T08:12:54Z</time></trkpt><trkpt lat="43.09037562842564" lon="-0.42968693964520693"><ele>420.0</ele><time>2026-04-01T08:12:55Z</time></trkpt><trkpt lat="43.090298829128244" lon="-0.4296603194425141"><ele>420.0</ele><time>2026-04-01T08:12:56Z</time></trkpt><trkpt lat="43.09026900784064" lon="-0.42954394598345713"><ele>420.0</ele><time>2026-04-01T08:12:57Z</time></trkpt><trkpt lat="43.090268039085046" lon="-0.4294486192078507"><ele>420.0</ele><time>2026-04-01T08:12:58Z</time></trkpt><trkpt lat="43.09021621406048" lon="-0.4293154528903226"><ele>420.75</ele><time>2026-04-01T08:12:59Z</time></trkpt><trkpt lat="43.09015726068927" lon="-0.429162833291522"><ele>421.5</ele><time>2026-04-01T08:13:00Z</time></trkpt><trkpt lat="43.09008004931458" lon="-0.4289973394387185"><ele>422.25</ele><time>2026-04-01T08:13:01Z</time></trkpt><trkpt lat="43.089985869850764" lon="-0.4288003002394568"><ele>423.0</ele><time>2026-04-01T08:13:02Z</time></trkpt><trkpt lat="43.08988853634238" lon="-0.42859617176448894"><ele>427.0</ele><time>2026-04-01T08:13:03Z</time></trkpt><trkpt lat="43.089786208191896" lon="-0.42838120925918477"><ele>431.0</ele><time>2026-04-01T08:13:04Z</time></trkpt><trkpt lat="43.0896828090762" lon="-0.4281615282339674"><ele>435.0</ele><time>2026-04-01T08:13:05Z</time></trkpt><trkpt lat="43.089570244030234" lon="-0.4279381097435516"><ele>435.0</ele><time>2026-04-01T08:13:06Z</time></trkpt><trkpt lat="43.08944471559344" lon="-0.4277198485637299"><ele>435.0</ele><time>2026-04-01T08:13:07Z</time></trkpt><trkpt lat="43.08932584895537" lon="-0.4275231388708295"><ele>435.0</ele><time>2026-04-01T08:13:08Z</time></trkpt><trkpt lat="43.08921634603739" lon="-0.42729027414165355"><ele>438.33333333333337</ele><time>2026-04-01T08:13:09Z</time></trkpt><trkpt lat="43.0890760604859" lon="-0.4270960702893722"><ele>441.6666666666667</ele><time>2026-04-01T08:13:10Z</time></trkpt><trkpt lat="43.0889124541678" lon="-0.42692436896737757"><ele>445.0</ele><time>2026-04-01T08:13:11Z</time></trkpt><trkpt lat="43.088768988419886" lon="-0.426724358332483"><ele>445.0</ele><time>2026-04-01T08:13:12Z</time></trkpt><trkpt lat="43.08860975614102" lon="-0.42654928442737605"><ele>445.0</ele><time>2026-04-01T08:13:13Z</time></trkpt><trkpt lat="43.08844401229723" lon="-0.4263811760335182"><ele>445.0</ele><time>2026-04-01T08:13:14Z</time></trkpt><trkpt lat="43.088262363620856" lon="-0.4262509500525261"><ele>443.33333333333337</ele><time>2026-04-01T08:13:15Z</time></trkpt><trkpt lat="43.08809151375189" lon="-0.42609705632479755"><ele>441.66666666666663</ele><time>2026-04-01T08:13:16Z</time></trkpt><trkpt lat="43.0879004979929" lon="-0.4260100875017705"><ele>440.0</ele><time>2026-04-01T08:13:17Z</time></trkpt><trkpt lat="43.087708766239714" lon="-0.42592388360839756"><ele>440.0</ele><time>2026-04-01T08:13:18Z</time></trkpt><trkpt lat="43.08750940341018" lon="-0.42585172738155963"><ele>440.0</ele><time>2026-04-01T08:13:19Z</time></trkpt><trkpt lat="43.087304148549094" lon="-0.42580013065301725"><ele>440.0</ele><time>2026-04-01T08:13:20Z</time></trkpt><trkpt lat="43.08710158390385" lon="-0.42575389441510314"><ele>441.3333333333333</ele><time>2026-04-01T08:13:21Z</time></trkpt><trkpt lat="43.08689707023615" lon="-0.42576537300694167"><ele>442.66666666666663</ele><time>2026-04-01T08:13:22Z</time></trkpt><trkpt lat="43.086700907028856" lon="-0.4257430384373592"><ele>444.0</ele><time>2026-04-01T08:13:23Z</time></trkpt><trkpt lat="43.086522021744045" lon="-0.42575186148648075"><ele>440.33333333333337</ele><time>2026-04-01T08:13:24Z</time></trkpt><trkpt lat="43.086354221473094" lon="-0.4257424953294416"><ele>436.6666666666667</ele><time>2026-04-01T08:13:25Z</time></trkpt><trkpt lat="43.08618409406062" lon="-0.4257078824016555"><ele>433.0</ele><time>2026-04-01T08:13:26Z</time></trkpt><trkpt lat="43.08601251161419" lon="-0.4256439041569769"><ele>433.0</ele><time>2026-04-01T08:13:27Z</time></trkpt><trkpt lat="43.08584441404882" lon="-0.4255542271898311"><ele>433.0</ele><time>2026-04-01T08:13:28Z</time></trkpt><trkpt lat="43.08567855205807" lon="-0.4254387943076164"><ele>433.0</ele><time>2026-04-01T08:13:29Z</time></trkpt><trkpt lat="43.085521437492886" lon="-0.4252958709106206"><ele>429.6666666666667</ele><time>2026-04-01T08:13:30Z</time></trkpt><trkpt lat="43.08537973273184" lon="-0.4251013520589141"><ele>426.33333333333337</ele><time>2026-04-01T08:13:31Z</time></trkpt><trkpt lat="43.08524552714422" lon="-0.4249184395295063"><ele>423.0</ele><time>2026-04-01T08:13:32Z</time></trkpt><trkpt lat="43.08513438580123" lon="-0.4247294336679502"><ele>422.75</ele><time>2026-04-01T08:13:33Z</time></trkpt><trkpt lat="43.08505107618614" lon="-0.42454516629815686"><ele>422.5</ele><time>2026-04-01T08:13:34Z</time></trkpt><trkpt lat="43.08497806802458" lon="-0.42436316729394585"><ele>422.25</ele><time>2026-04-01T08:13:35Z</time></trkpt><trkpt lat="43.084926791265794" lon="-0.42418619433002547"><ele>422.0</ele><time>2026-04-01T08:13:36Z</time></trkpt><trkpt lat="43.084854238330436" lon="-0.42406750733138965"><ele>421.99999999999994</ele><time>2026-04-01T08:13:37Z</time></trkpt><trkpt lat="43.08478618845262" lon="-0.42395980509432485"><ele>422.0</ele><time>2026-04-01T08:13:38Z</time></trkpt><trkpt lat="43.08470564141794" lon="-0.4238897195991008"><ele>422.0</ele><time>2026-04-01T08:13:39Z</time></trkpt><trkpt lat="43.08462315974445" lon="-0.4238273410217168"><ele>422.0</ele><time>2026-04-01T08:13:40Z</time></trkpt><trkpt lat="43.08458050080266" lon="-0.42374210138423657"><ele>421.99999999999994</ele><time>2026-04-01T08:13:41Z</time></trkpt><trkpt lat="43.08457189436879" lon="-0.42363426990381414"><ele>422.0</ele><time>2026-04-01T08:13:42Z</time></trkpt><trkpt lat="43.0845940432233" lon="-0.4235264602684563"><ele>422.0</ele><time>2026-04-01T08:13:43Z</time></trkpt><trkpt lat="43.08464075037588" lon="-0.42342284333276115"><ele>422.0</ele><time>2026-04-01T08:13:44Z</time></trkpt><trkpt lat="43.084710387974276" lon="-0.42332243798435737"><ele>422.0</ele><time>2026-04-01T08:13:45Z</time></trkpt><trkpt lat="43.08477961036983" lon="-0.42321211856138"><ele>422.0</ele><time>2026-04-01T08:13:46Z</time></trkpt><trkpt lat="43.08482600286993" lon="-0.4230683773801166"><ele>422.0</ele><time>2026-04-01T08:13:47Z</time></trkpt><trkpt lat="43.08486160289834" lon="-0.42288839377757126"><ele>422.0</ele><time>2026-04-01T08:13:48Z</time></trkpt><trkpt lat="43.08490312875615" lon="-0.42269450368166145"><ele>422.0</ele><time>2026-04-01T08:13:49Z</time></trkpt><trkpt lat="43.084952991066395" lon="-0.4225079677464899"><ele>422.0</ele><time>2026-04-01T08:13:50Z</time></trkpt><trkpt lat="43.08500095705443" lon="-0.4223517963411008"><ele>422.0</ele><time>2026-04-01T08:13:51Z</time></trkpt><trkpt lat="43.08503640606326" lon="-0.4222304219639287"><ele>421.42857142857144</ele><time>2026-04-01T08:13:52Z</time></trkpt><trkpt lat="43.08507097463925" lon="-0.42212398754361424"><ele>420.8571428571429</ele><time>2026-04-01T08:13:53Z</time></trkpt><trkpt lat="43.08510867072098" lon="-0.4220230562810924"><ele>420.2857142857143</ele><time>2026-04-01T08:13:54Z</time></trkpt><trkpt lat="43.085152351197934" lon="-0.42194485460443015"><ele>419.7142857142857</ele><time>2026-04-01T08:13:55Z</time></trkpt><trkpt lat="43.08521151865647" lon="-0.42190328566337393"><ele>419.1428571428571</ele><time>2026-04-01T08:13:56Z</time></trkpt><trkpt lat="43.08527880654125" lon="-0.4219000241179917"><ele>418.57142857142856</ele><time>2026-04-01T08:13:57Z</time></trkpt><trkpt lat="43.085345698826394" lon="-0.4219419013625391"><ele>418.0</ele><time>2026-04-01T08:13:58Z</time></trkpt><trkpt lat="43.085440428317455" lon="-0.42200904529588235"><ele>418.0</ele><time>2026-04-01T08:13:59Z</time></trkpt><trkpt lat="43.08555092426794" lon="-0.42207525572328625"><ele>418.0</ele><time>2026-04-01T08:14:00Z</time></trkpt><trkpt lat="43.08564960954403" lon="-0.4221142293572788"><ele>418.0</ele><time>2026-04-01T08:14:01Z</time></trkpt><trkpt lat="43.08574325439163" lon="-0.4221147744686769"><ele>418.0</ele><time>2026-04-01T08:14:02Z</time></trkpt><trkpt lat="43.085823941012805" lon="-0.42206645348637856"><ele>418.0</ele><time>2026-04-01T08:14:03Z</time></trkpt><trkpt lat="43.085884311410176" lon="-0.42198234576309407"><ele>418.0</ele><time>2026-04-01T08:14:04Z</time></trkpt><trkpt lat="43.085937785993565" lon="-0.4218737533740852"><ele>418.0</ele><time>2026-04-01T08:14:05Z</time></trkpt><trkpt lat="43.08599281278018" lon="-0.42175129052414595"><ele>418.0</ele><time>2026-04-01T08:14:06Z</time></trkpt><trkpt lat="43.08604852151453" lon="-0.42162098581253055"><ele>418.0</ele><time>2026-04-01T08:14:07Z</time></trkpt><trkpt lat="43.086109532872996" lon="-0.4214898104707998"><ele>418.0</ele><time>2026-04-01T08:14:08Z</time></trkpt><trkpt lat="43.08616410836991" lon="-0.42137659643932196"><ele>418.0</ele><time>2026-04-01T08:14:09Z</time></trkpt><trkpt lat="43.08621057482004" lon="-0.42127002937130714"><ele>418.0</ele><time>2026-04-01T08:14:10Z</time></trkpt><trkpt lat="43.086249202537346" lon="-0.42116580104509654"><ele>418.0</ele><time>2026-04-01T08:14:11Z</time></trkpt><trkpt lat="43.08627011819437" lon="-0.42105036342407676"><ele>418.0</ele><time>2026-04-01T08:14:12Z</time></trkpt><trkpt lat="43.08633063219524" lon="-0.4210199644884503"><ele>418.0</ele><time>2026-04-01T08:14:13Z</time></trkpt><trkpt lat="43.08626385357324" lon="-0.4207615225559038"><ele>418.0</ele><time>2026-04-01T08:14:14Z</time></trkpt><trkpt lat="43.086249771709895" lon="-0.42059304067278763"><ele>418.0</ele><time>2026-04-01T08:14:15Z</time></trkpt><trkpt lat="43.086226833500994" lon="-0.42042815949575785"><ele>418.0</ele><time>2026-04-01T08:14:16Z</time></trkpt><trkpt lat="43.08619571782334" lon="-0.42029412854942017"><ele>418.0</ele><time>2026-04-01T08:14:17Z</time></trkpt><trkpt lat="43.086177735197374" lon="-0.4201659636664268"><ele>418.0</ele><time>2026-04-01T08:14:18Z</time></trkpt><trkpt lat="43.086184103156306" lon="-0.42002771013876544"><ele>418.2</ele><time>2026-04-01T08:14:19Z</time></trkpt><trkpt lat="43.08620682221492" lon="-0.4198961276484518"><ele>418.4</ele><time>2026-04-01T08:14:20Z</time></trkpt><trkpt lat="43.08623697263131" lon="-0.41975859304139396"><ele>418.59999999999997</ele><time>2026-04-01T08:14:21Z</time></trkpt><trkpt lat="43.08627330334378" lon="-0.4196318316255511"><ele>418.79999999999995</ele><time>2026-04-01T08:14:22Z</time></trkpt><trkpt lat="43.08630835893662" lon="-0.4195026953226913"><ele>419.0</ele><time>2026-04-01T08:14:23Z</time></trkpt><trkpt lat="43.086340456965566" lon="-0.419373694210722"><ele>418.99999999999994</ele><time>2026-04-01T08:14:24Z</time></trkpt><trkpt lat="43.086357361049565" lon="-0.419266234584335"><ele>419.0</ele><time>2026-04-01T08:14:25Z</time></trkpt><trkpt lat="43.086370405151655" lon="-0.4191524182912436"><ele>419.0</ele><time>2026-04-01T08:14:27Z</time></trkpt><trkpt lat="43.08638631213114" lon="-0.4190679705240949"><ele>419.0</ele><time>2026-04-01T08:14:29Z</time></trkpt><trkpt lat="43.086404958624776" lon="-0.41897479881164945"><ele>418.99999999999994</ele><time>2026-04-01T08:14:30Z</time></trkpt><trkpt lat="43.08642679942256" lon="-0.41885026072507464"><ele>419.0</ele><time>2026-04-01T08:14:31Z</time></trkpt><trkpt lat="43.08645177007289" lon="-0.41872691085365377"><ele>419.4</ele><time>2026-04-01T08:14:32Z</time></trkpt><trkpt lat="43.086474321116114" lon="-0.41860891517684506"><ele>419.79999999999995</ele><time>2026-04-01T08:14:33Z</time></trkpt><trkpt lat="43.086496008535214" lon="-0.41848666253902406"><ele>420.20000000000005</ele><time>2026-04-01T08:14:34Z</time></trkpt><trkpt lat="43.08651459730364" lon="-0.4183621539288492"><ele>420.6</ele><time>2026-04-01T08:14:35Z</time></trkpt><trkpt lat="43.08652692189507" lon="-0.4182287663921343"><ele>421.0</ele><time>2026-04-01T08:14:36Z</time></trkpt><trkpt lat="43.086525676557414" lon="-0.41809228100140017"><ele>421.8</ele><time>2026-04-01T08:14:37Z</time></trkpt><trkpt lat="43.086516115344" lon="-0.4179567876919104"><ele>422.6</ele><time>2026-04-01T08:14:38Z</time></trkpt><trkpt lat="43.0865093803934" lon="-0.41782182139941176"><ele>423.4</ele><time>2026-04-01T08:14:39Z</time></trkpt><trkpt lat="43.08651022725476" lon="-0.41769322060465425"><ele>424.2</ele><time>2026-04-01T08:14:40Z</time></trkpt><trkpt lat="43.08651137716593" lon="-0.4175541303650526"><ele>425.0</ele><time>2026-04-01T08:14:41Z</time></trkpt><trkpt lat="43.08650882818031" lon="-0.4174043395551569"><ele>425.0</ele><time>2026-04-01T08:14:42Z</time></trkpt><trkpt lat="43.08650221771362" lon="-0.41724414452971564"><ele>425.0</ele><time>2026-04-01T08:14:43Z</time></trkpt><trkpt lat="43.08649086131699" lon="-0.41708097233776764"><ele>425.0</ele><time>2026-04-01T08:14:44Z</time></trkpt><trkpt lat="43.08647565931505" lon="-0.4169187746036267"><ele>425.0</ele><time>2026-04-01T08:14:45Z</time></trkpt><trkpt lat="43.08646528018421" lon="-0.41675676733979694"><ele>429.0</ele><time>2026-04-01T08:14:46Z</time></trkpt><trkpt lat="43.086463549111755" lon="-0.4165789996599433"><ele>433.0</ele><time>2026-04-01T08:14:47Z</time></trkpt><trkpt lat="43.086461568779384" lon="-0.41639433003974136"><ele>437.0</ele><time>2026-04-01T08:14:48Z</time></trkpt><trkpt lat="43.08645503549246" lon="-0.41620514042851736"><ele>441.0</ele><time>2026-04-01T08:14:49Z</time></trkpt><trkpt lat="43.08644675154752" lon="-0.41602202322410803"><ele>442.20000000000005</ele><time>2026-04-01T08:14:50Z</time></trkpt><trkpt lat="43.08644671051408" lon="-0.4158682265315696"><ele>443.40000000000003</ele><time>2026-04-01T08:14:51Z</time></trkpt><trkpt lat="43.086461348316355" lon="-0.4157251503941671"><ele>444.6</ele><time>2026-04-01T08:14:52Z</time></trkpt><trkpt lat="43.08649171988228" lon="-0.4156056650586958"><ele>445.8</ele><time>2026-04-01T08:14:53Z</time></trkpt><trkpt lat="43.086564321317816" lon="-0.41550152470808926"><ele>447.0</ele><time>2026-04-01T08:14:54Z</time></trkpt><trkpt lat="43.08665760982387" lon="-0.41543775898819235"><ele>447.0</ele><time>2026-04-01T08:14:55Z</time></trkpt><trkpt lat="43.0867678954205" lon="-0.4154221064177356"><ele>447.00000000000006</ele><time>2026-04-01T08:14:56Z</time></trkpt><trkpt lat="43.08688136118052" lon="-0.4154275215770236"><ele>447.00000000000006</ele><time>2026-04-01T08:14:57Z</time></trkpt><trkpt lat="43.08696590194293" lon="-0.41543309890716995"><ele>447.0</ele><time>2026-04-01T08:14:58Z</time></trkpt><trkpt lat="43.08702995326017" lon="-0.4154014769031859"><ele>447.0</ele><time>2026-04-01T08:14:59Z</time></trkpt><trkpt lat="43.08709445875743" lon="-0.4153527138393722"><ele>447.0</ele><time>2026-04-01T08:15:00Z</time></trkpt><trkpt lat="43.08715977595507" lon="-0.4152907188500013"><ele>447.0</ele><time>2026-04-01T08:15:01Z</time></trkpt><trkpt lat="43.08722630239098" lon="-0.41523643907081226"><ele>447.0</ele><time>2026-04-01T08:15:02Z</time></trkpt><trkpt lat="43.08729996643967" lon="-0.41518219409091855"><ele>447.0</ele><time>2026-04-01T08:15:03Z</time></trkpt><trkpt lat="43.0873823573994" lon="-0.415127698165125"><ele>447.0</ele><time>2026-04-01T08:15:05Z</time></trkpt><trkpt lat="43.08729850588897" lon="-0.4151893945558784"><ele>447.0</ele><time>2026-04-01T08:15:10Z</time></trkpt><trkpt lat="43.08723611199837" lon="-0.41523372926797436"><ele>447.0</ele><time>2026-04-01T08:15:11Z</time></trkpt><trkpt lat="43.08718304301536" lon="-0.4152962994730667"><ele>447.0</ele><time>2026-04-01T08:15:12Z</time></trkpt><trkpt lat="43.087081492620754" lon="-0.4153898761955277"><ele>447.0</ele><time>2026-04-01T08:15:14Z</time></trkpt><trkpt lat="43.08699399024185" lon="-0.41546620563464065"><ele>447.0</ele><time>2026-04-01T08:15:16Z</time></trkpt><trkpt lat="43.086937469645974" lon="-0.41553685081251224"><ele>447.0</ele><time>2026-04-01T08:15:18Z</time></trkpt><trkpt lat="43.086890772190536" lon="-0.41546035049602237"><ele>447.0</ele><time>2026-04-01T08:15:26Z</time></trkpt><trkpt lat="43.08695719534448" lon="-0.415392094279488"><ele>447.0</ele><time>2026-04-01T08:15:28Z</time></trkpt><trkpt lat="43.08705142034671" lon="-0.41534410288105456"><ele>447.0</ele><time>2026-04-01T08:15:29Z</time></trkpt><trkpt lat="43.087172693618754" lon="-0.4152756021879089"><ele>447.0</ele><time>2026-04-01T08:15:30Z</time></trkpt><trkpt lat="43.08729858554995" lon="-0.4151836035676804"><ele>447.0</ele><time>2026-04-01T08:15:31Z</time></trkpt><trkpt lat="43.08741513326629" lon="-0.4150954076592771"><ele>446.25</ele><time>2026-04-01T08:15:32Z</time></trkpt><trkpt lat="43.08752861302299" lon="-0.414998699546868"><ele>445.5</ele><time>2026-04-01T08:15:33Z</time></trkpt><trkpt lat="43.08764437735155" lon="-0.4148914085133132"><ele>444.75</ele><time>2026-04-01T08:15:34Z</time></trkpt><trkpt lat="43.08775251254343" lon="-0.414785709194949"><ele>444.0</ele><time>2026-04-01T08:15:35Z</time></trkpt><trkpt lat="43.08785762268747" lon="-0.4146638797380461"><ele>451.0</ele><time>2026-04-01T08:15:36Z</time></trkpt><trkpt lat="43.08796319644512" lon="-0.4145196873550867"><ele>458.0</ele><time>2026-04-01T08:15:37Z</time></trkpt><trkpt lat="43.08805545701351" lon="-0.41438880902141423"><ele>465.0</ele><time>2026-04-01T08:15:38Z</time></trkpt><trkpt lat="43.08814079629392" lon="-0.4142918138431186"><ele>472.0</ele><time>2026-04-01T08:15:39Z</time></trkpt><trkpt lat="43.08822596644556" lon="-0.41422810872899807"><ele>469.20000000000005</ele><time>2026-04-01T08:15:40Z</time></trkpt><trkpt lat="43.08832225057607" lon="-0.4141975590552015"><ele>466.40000000000003</ele><time>2026-04-01T08:15:41Z</time></trkpt><trkpt lat="43.08842573670191" lon="-0.41420823831938525"><ele>463.59999999999997</ele><time>2026-04-01T08:15:42Z</time></trkpt><trkpt lat="43.08853395353416" lon="-0.4142590779609575"><ele>460.79999999999995</ele><time>2026-04-01T08:15:43Z</time></trkpt><trkpt lat="43.08864291826618" lon="-0.4143438246892445"><ele>458.0</ele><time>2026-04-01T08:15:44Z</time></trkpt><trkpt lat="43.088746453377176" lon="-0.4144458049166215"><ele>458.0</ele><time>2026-04-01T08:15:45Z</time></trkpt><trkpt lat="43.08882631384888" lon="-0.41453976387404445"><ele>457.99999999999994</ele><time>2026-04-01T08:15:46Z</time></trkpt><trkpt lat="43.08889485945946" lon="-0.41459858862928356"><ele>457.99999999999994</ele><time>2026-04-01T08:15:47Z</time></trkpt><trkpt lat="43.088991589224676" lon="-0.414558564244716"><ele>458.0</ele><time>2026-04-01T08:15:49Z</time></trkpt><trkpt lat="43.08901975102417" lon="-0.41447540841777875"><ele>458.0</ele><time>2026-04-01T08:15:51Z</time></trkpt><trkpt lat="43.08895356842672" lon="-0.41433254360919813"><ele>458.0</ele><time>2026-04-01T08:15:52Z</time></trkpt><trkpt lat="43.088880696694204" lon="-0.4142462003948341"><ele>457.99999999999994</ele><time>2026-04-01T08:15:53Z</time></trkpt><trkpt lat="43.0887988951202" lon="-0.41413747829249814"><ele>457.99999999999994</ele><time>2026-04-01T08:15:54Z</time></trkpt><trkpt lat="43.088727381172404" lon="-0.41402349871441274"><ele>458.0</ele><time>2026-04-01T08:15:55Z</time></trkpt><trkpt lat="43.08867171265542" lon="-0.4138913223901436"><ele>458.0</ele><time>2026-04-01T08:15:56Z</time></trkpt><trkpt lat="43.08864454746672" lon="-0.41373424563581973"><ele>463.5</ele><time>2026-04-01T08:15:57Z</time></trkpt><trkpt lat="43.0886586630907" lon="-0.413555581111643"><ele>469.0</ele><time>2026-04-01T08:15:58Z</time></trkpt><trkpt lat="43.08866310889558" lon="-0.413375471052251"><ele>474.5</ele><time>2026-04-01T08:15:59Z</time></trkpt><trkpt lat="43.08866162388647" lon="-0.4131876540902888"><ele>480.0</ele><time>2026-04-01T08:16:00Z</time></trkpt><trkpt lat="43.08866156075238" lon="-0.4129957608732374"><ele>483.5</ele><time>2026-04-01T08:16:01Z</time></trkpt><trkpt lat="43.08867124165538" lon="-0.41279575530523177"><ele>487.0</ele><time>2026-04-01T08:16:02Z</time></trkpt><trkpt lat="43.08869635615991" lon="-0.4126001282839083"><ele>490.5</ele><time>2026-04-01T08:16:03Z</time></trkpt><trkpt lat="43.08874532700247" lon="-0.4124029472676496"><ele>494.0</ele><time>2026-04-01T08:16:04Z</time></trkpt><trkpt lat="43.08880721153458" lon="-0.412212058571629"><ele>499.0</ele><time>2026-04-01T08:16:05Z</time></trkpt><trkpt lat="43.08887162079261" lon="-0.41202010880433443"><ele>504.0</ele><time>2026-04-01T08:16:06Z</time></trkpt><trkpt lat="43.08893891335307" lon="-0.4118251842136682"><ele>509.0</ele><time>2026-04-01T08:16:07Z</time></trkpt><trkpt lat="43.08900869797008" lon="-0.4116260565597953"><ele>509.0</ele><time>2026-04-01T08:16:08Z</time></trkpt><trkpt lat="43.08907345213639" lon="-0.4114126397376003"><ele>509.0</ele><time>2026-04-01T08:16:09Z</time></trkpt><trkpt lat="43.08913454207164" lon="-0.41117055321802165"><ele>509.0</ele><time>2026-04-01T08:16:10Z</time></trkpt><trkpt lat="43.08918764709014" lon="-0.4109336987378609"><ele>504.66666666666663</ele><time>2026-04-01T08:16:11Z</time></trkpt><trkpt lat="43.089223853683485" lon="-0.4107126394043012"><ele>500.33333333333337</ele><time>2026-04-01T08:16:12Z</time></trkpt><trkpt lat="43.089247202470624" lon="-0.41047876932546556"><ele>496.0</ele><time>2026-04-01T08:16:13Z</time></trkpt><trkpt lat="43.08923810141205" lon="-0.41025404885154115"><ele>496.0</ele><time>2026-04-01T08:16:14Z</time></trkpt><trkpt lat="43.08922932454427" lon="-0.41000679573740073"><ele>496.0</ele><time>2026-04-01T08:16:15Z</time></trkpt><trkpt lat="43.08922014550404" lon="-0.4097617993940981"><ele>496.0</ele><time>2026-04-01T08:16:16Z</time></trkpt><trkpt lat="43.08920954083762" lon="-0.4095197490886302"><ele>497.33333333333337</ele><time>2026-04-01T08:16:17Z</time></trkpt><trkpt lat="43.089198273909076" lon="-0.4092843811845004"><ele>498.66666666666663</ele><time>2026-04-01T08:16:18Z</time></trkpt><trkpt lat="43.08918792373642" lon="-0.4090561284218369"><ele>500.0</ele><time>2026-04-01T08:16:19Z</time></trkpt><trkpt lat="43.0891717624216" lon="-0.40882933467581695"><ele>501.66666666666663</ele><time>2026-04-01T08:16:20Z</time></trkpt><trkpt lat="43.08913807359307" lon="-0.40859647556437706"><ele>503.33333333333337</ele><time>2026-04-01T08:16:21Z</time></trkpt><trkpt lat="43.08910112640854" lon="-0.4083776190965656"><ele>505.0</ele><time>2026-04-01T08:16:22Z</time></trkpt><trkpt lat="43.08906942430018" lon="-0.40810715865381797"><ele>511.33333333333337</ele><time>2026-04-01T08:16:23Z</time></trkpt><trkpt lat="43.08902847583507" lon="-0.4078771402199882"><ele>517.6666666666666</ele><time>2026-04-01T08:16:24Z</time></trkpt><trkpt lat="43.088984857255575" lon="-0.40765189772798277"><ele>524.0</ele><time>2026-04-01T08:16:25Z</time></trkpt><trkpt lat="43.08893967068722" lon="-0.40743162905590424"><ele>524.0</ele><time>2026-04-01T08:16:26Z</time></trkpt><trkpt lat="43.088890436424" lon="-0.40721275194430623"><ele>524.0</ele><time>2026-04-01T08:16:27Z</time></trkpt><trkpt lat="43.08884226190377" lon="-0.4069977479992414"><ele>524.0</ele><time>2026-04-01T08:16:28Z</time></trkpt><trkpt lat="43.08879487648585" lon="-0.4067764430289713"><ele>520.3333333333333</ele><time>2026-04-01T08:16:29Z</time></trkpt><trkpt lat="43.088749279730685" lon="-0.4065578505357531"><ele>516.6666666666666</ele><time>2026-04-01T08:16:30Z</time></trkpt><trkpt lat="43.08870350354719" lon="-0.40633259702548935"><ele>513.0</ele><time>2026-04-01T08:16:31Z</time></trkpt><trkpt lat="43.088654647493065" lon="-0.40609895988081085"><ele>511.66666666666663</ele><time>2026-04-01T08:16:32Z</time></trkpt><trkpt lat="43.088606104732115" lon="-0.4058684078001342"><ele>510.3333333333333</ele><time>2026-04-01T08:16:33Z</time></trkpt><trkpt lat="43.08855623997343" lon="-0.4056328568917246"><ele>509.0</ele><time>2026-04-01T08:16:34Z</time></trkpt><trkpt lat="43.08851113656103" lon="-0.40539530627796183"><ele>506.66666666666663</ele><time>2026-04-01T08:16:35Z</time></trkpt><trkpt lat="43.08847405231261" lon="-0.405154074634579"><ele>504.33333333333337</ele><time>2026-04-01T08:16:36Z</time></trkpt><trkpt lat="43.08844455066654" lon="-0.4049097339521649"><ele>502.0</ele><time>2026-04-01T08:16:37Z</time></trkpt><trkpt lat="43.08841691684996" lon="-0.4046545758802716"><ele>498.6666666666667</ele><time>2026-04-01T08:16:38Z</time></trkpt><trkpt lat="43.088383122101654" lon="-0.40438039719494806"><ele>495.33333333333337</ele><time>2026-04-01T08:16:39Z</time></trkpt><trkpt lat="43.08834238891631" lon="-0.40410552705932273"><ele>492.0</ele><time>2026-04-01T08:16:40Z</time></trkpt><trkpt lat="43.088304904220564" lon="-0.40383395248719034"><ele>492.33333333333337</ele><time>2026-04-01T08:16:41Z</time></trkpt><trkpt lat="43.08826896120336" lon="-0.40355850496290985"><ele>492.6666666666667</ele><time>2026-04-01T08:16:42Z</time></trkpt><trkpt lat="43.08823790211398" lon="-0.4033007385120008"><ele>493.0</ele><time>2026-04-01T08:16:43Z</time></trkpt><trkpt lat="43.088220462725324" lon="-0.4030530585646889"><ele>492.33333333333337</ele><time>2026-04-01T08:16:44Z</time></trkpt><trkpt lat="43.088220818739394" lon="-0.4027970791526614"><ele>491.66666666666663</ele><time>2026-04-01T08:16:45Z</time></trkpt><trkpt lat="43.08823393749284" lon="-0.4025394777331239"><ele>491.0</ele><time>2026-04-01T08:16:46Z</time></trkpt><trkpt lat="43.088262894001794" lon="-0.40227346940115993"><ele>489.66666666666663</ele><time>2026-04-01T08:16:47Z</time></trkpt><trkpt lat="43.08829827930922" lon="-0.4019927577249693"><ele>488.33333333333337</ele><time>2026-04-01T08:16:48Z</time></trkpt><trkpt lat="43.088335280722525" lon="-0.4016902402971579"><ele>487.0</ele><time>2026-04-01T08:16:49Z</time></trkpt><trkpt lat="43.08836451590707" lon="-0.4014099981555627"><ele>486.33333333333337</ele><time>2026-04-01T08:16:50Z</time></trkpt><trkpt lat="43.08839284937544" lon="-0.40111674114185936"><ele>485.66666666666663</ele><time>2026-04-01T08:16:51Z</time></trkpt><trkpt lat="43.08841369808849" lon="-0.40081949742487694"><ele>485.0</ele><time>2026-04-01T08:16:52Z</time></trkpt><trkpt lat="43.08842385944932" lon="-0.40052414374604184"><ele>485.0</ele><time>2026-04-01T08:16:53Z</time></trkpt><trkpt lat="43.08842764231883" lon="-0.40022507798943496"><ele>485.0</ele><time>2026-04-01T08:16:54Z</time></trkpt><trkpt lat="43.08842465352992" lon="-0.3999372799399538"><ele>485.0</ele><time>2026-04-01T08:16:55Z</time></trkpt><trkpt lat="43.08841396722059" lon="-0.39966378413050435"><ele>483.0</ele><time>2026-04-01T08:16:56Z</time></trkpt><trkpt lat="43.088399393609855" lon="-0.3993899936455177"><ele>481.0</ele><time>2026-04-01T08:16:57Z</time></trkpt><trkpt lat="43.088376360836406" lon="-0.39910299136342825"><ele>479.0</ele><time>2026-04-01T08:16:58Z</time></trkpt><trkpt lat="43.088349120058886" lon="-0.3988234274633877"><ele>477.3333333333333</ele><time>2026-04-01T08:16:59Z</time></trkpt><trkpt lat="43.08833909574012" lon="-0.39854040918525335"><ele>475.66666666666663</ele><time>2026-04-01T08:17:00Z</time></trkpt><trkpt lat="43.08836086208889" lon="-0.39824397289740343"><ele>474.0</ele><time>2026-04-01T08:17:01Z</time></trkpt><trkpt lat="43.088408314725875" lon="-0.3979194702223158"><ele>473.0</ele><time>2026-04-01T08:17:02Z</time></trkpt><trkpt lat="43.088465043633896" lon="-0.39759625743949134"><ele>472.0</ele><time>2026-04-01T08:17:03Z</time></trkpt><trkpt lat="43.08852580276323" lon="-0.3972833703914748"><ele>474.0</ele><time>2026-04-01T08:17:04Z</time></trkpt><trkpt lat="43.08858879902281" lon="-0.3969710393329781"><ele>476.0</ele><time>2026-04-01T08:17:05Z</time></trkpt><trkpt lat="43.08864434549281" lon="-0.39665622451114885"><ele>476.0</ele><time>2026-04-01T08:17:06Z</time></trkpt><trkpt lat="43.08869623605541" lon="-0.39642021647320513"><ele>476.0</ele><time>2026-04-01T08:17:07Z</time></trkpt><trkpt lat="43.08874352764032" lon="-0.39614011616280775"><ele>476.0</ele><time>2026-04-01T08:17:08Z</time></trkpt><trkpt lat="43.08879357006898" lon="-0.3958691954277711"><ele>476.3333333333333</ele><time>2026-04-01T08:17:09Z</time></trkpt><trkpt lat="43.088837601716925" lon="-0.3956005831465424"><ele>476.66666666666663</ele><time>2026-04-01T08:17:10Z</time></trkpt><trkpt lat="43.08886543101607" lon="-0.3953002748585052"><ele>477.0</ele><time>2026-04-01T08:17:11Z</time></trkpt><trkpt lat="43.08887032939053" lon="-0.3950309385365547"><ele>476.66666666666663</ele><time>2026-04-01T08:17:12Z</time></trkpt><trkpt lat="43.08886326761077" lon="-0.39477478502875607"><ele>476.3333333333333</ele><time>2026-04-01T08:17:13Z</time></trkpt><trkpt lat="43.08885706348671" lon="-0.39452497993944524"><ele>476.0</ele><time>2026-04-01T08:17:14Z</time></trkpt><trkpt lat="43.08887268218463" lon="-0.39428720704998316"><ele>476.0</ele><time>2026-04-01T08:17:15Z</time></trkpt><trkpt lat="43.08890912179043" lon="-0.3940577523166166"><ele>476.0</ele><time>2026-04-01T08:17:16Z</time></trkpt><trkpt lat="43.08896882265951" lon="-0.3938342782888144"><ele>476.0</ele><time>2026-04-01T08:17:17Z</time></trkpt><trkpt lat="43.08903531202609" lon="-0.3935827417630372"><ele>467.66666666666663</ele><time>2026-04-01T08:17:18Z</time></trkpt><trkpt lat="43.089142283085614" lon="-0.3933281699385172"><ele>459.33333333333337</ele><time>2026-04-01T08:17:19Z</time></trkpt><trkpt lat="43.089245013694686" lon="-0.39306580285793674"><ele>451.0</ele><time>2026-04-01T08:17:20Z</time></trkpt><trkpt lat="43.08931332259221" lon="-0.3927917356420087"><ele>451.0</ele><time>2026-04-01T08:17:21Z</time></trkpt><trkpt lat="43.08938856064165" lon="-0.39248026413143916"><ele>451.0</ele><time>2026-04-01T08:17:22Z</time></trkpt><trkpt lat="43.08945895890536" lon="-0.3921342161052236"><ele>453.5</ele><time>2026-04-01T08:17:23Z</time></trkpt><trkpt lat="43.089531276796585" lon="-0.3917617852241484"><ele>456.0</ele><time>2026-04-01T08:17:24Z</time></trkpt><trkpt lat="43.08962954378439" lon="-0.39137888063377557"><ele>460.0</ele><time>2026-04-01T08:17:25Z</time></trkpt><trkpt lat="43.089706908536584" lon="-0.39097393916156414"><ele>464.0</ele><time>2026-04-01T08:17:26Z</time></trkpt><trkpt lat="43.08978015840601" lon="-0.3905986584623651"><ele>469.0</ele><time>2026-04-01T08:17:27Z</time></trkpt><trkpt lat="43.08985243205282" lon="-0.3902467748378668"><ele>474.0</ele><time>2026-04-01T08:17:28Z</time></trkpt><trkpt lat="43.08991767990952" lon="-0.3899087268407162"><ele>450.5</ele><time>2026-04-01T08:17:29Z</time></trkpt><trkpt lat="43.089975954628976" lon="-0.389577884789214"><ele>427.0</ele><time>2026-04-01T08:17:30Z</time></trkpt><trkpt lat="43.09004010047187" lon="-0.3892555663256969"><ele>427.0</ele><time>2026-04-01T08:17:31Z</time></trkpt><trkpt lat="43.09011841770078" lon="-0.3889477725795109"><ele>427.0</ele><time>2026-04-01T08:17:32Z</time></trkpt><trkpt lat="43.09021686176617" lon="-0.38865698747062677"><ele>427.5</ele><time>2026-04-01T08:17:33Z</time></trkpt><trkpt lat="43.09033121886519" lon="-0.3883752106963895"><ele>428.0</ele><time>2026-04-01T08:17:34Z</time></trkpt><trkpt lat="43.090440497768434" lon="-0.38809814058172903"><ele>428.3333333333333</ele><time>2026-04-01T08:17:35Z</time></trkpt><trkpt lat="43.09053221432623" lon="-0.387833102770295"><ele>428.66666666666663</ele><time>2026-04-01T08:17:36Z</time></trkpt><trkpt lat="43.090618110238964" lon="-0.38756271685948074"><ele>429.0</ele><time>2026-04-01T08:17:37Z</time></trkpt><trkpt lat="43.09066043867485" lon="-0.3873782882532797"><ele>431.33333333333337</ele><time>2026-04-01T08:17:38Z</time></trkpt><trkpt lat="43.090679248615324" lon="-0.3870613802783565"><ele>433.6666666666667</ele><time>2026-04-01T08:17:39Z</time></trkpt><trkpt lat="43.090698281319696" lon="-0.3867998113464472"><ele>436.0</ele><time>2026-04-01T08:17:40Z</time></trkpt><trkpt lat="43.09069664511573" lon="-0.38652778723750636"><ele>437.6666666666667</ele><time>2026-04-01T08:17:41Z</time></trkpt><trkpt lat="43.090676870090874" lon="-0.38625203194238095"><ele>439.33333333333337</ele><time>2026-04-01T08:17:42Z</time></trkpt><trkpt lat="43.09065793491524" lon="-0.3859777990039287"><ele>441.0</ele><time>2026-04-01T08:17:43Z</time></trkpt><trkpt lat="43.09063641326874" lon="-0.38565743766849037"><ele>440.0</ele><time>2026-04-01T08:17:44Z</time></trkpt><trkpt lat="43.09061217974207" lon="-0.38538473619628"><ele>439.0</ele><time>2026-04-01T08:17:45Z</time></trkpt><trkpt lat="43.09059074890419" lon="-0.38512280204876664"><ele>438.0</ele><time>2026-04-01T08:17:46Z</time></trkpt><trkpt lat="43.09057486031302" lon="-0.38487117867056564"><ele>437.0</ele><time>2026-04-01T08:17:47Z</time></trkpt><trkpt lat="43.09055793684484" lon="-0.38462531096987684"><ele>436.0</ele><time>2026-04-01T08:17:48Z</time></trkpt><trkpt lat="43.09055636912771" lon="-0.384392499382906"><ele>435.0</ele><time>2026-04-01T08:17:49Z</time></trkpt><trkpt lat="43.0905803989961" lon="-0.3841684841547638"><ele>435.0</ele><time>2026-04-01T08:17:50Z</time></trkpt><trkpt lat="43.09064149843043" lon="-0.3839447712618353"><ele>435.0</ele><time>2026-04-01T08:17:51Z</time></trkpt><trkpt lat="43.09073375940298" lon="-0.3837318393116924"><ele>435.0</ele><time>2026-04-01T08:17:52Z</time></trkpt><trkpt lat="43.09085191013122" lon="-0.3835373953620351"><ele>425.66666666666663</ele><time>2026-04-01T08:17:53Z</time></trkpt><trkpt lat="43.09097471839495" lon="-0.3833648257673007"><ele>416.3333333333333</ele><time>2026-04-01T08:17:54Z</time></trkpt><trkpt lat="43.09108269464568" lon="-0.3831692589931032"><ele>407.0</ele><time>2026-04-01T08:17:55Z</time></trkpt><trkpt lat="43.09115819096058" lon="-0.38295107970988307"><ele>407.0</ele><time>2026-04-01T08:17:56Z</time></trkpt><trkpt lat="43.09120442060221" lon="-0.3827181725789891"><ele>407.0</ele><time>2026-04-01T08:17:57Z</time></trkpt><trkpt lat="43.09121974946476" lon="-0.3824551846862827"><ele>407.0</ele><time>2026-04-01T08:17:58Z</time></trkpt><trkpt lat="43.09120359176434" lon="-0.3821709646903675"><ele>405.66666666666663</ele><time>2026-04-01T08:17:59Z</time></trkpt><trkpt lat="43.091171566070074" lon="-0.38186831774230295"><ele>404.33333333333337</ele><time>2026-04-01T08:18:00Z</time></trkpt><trkpt lat="43.09113338681605" lon="-0.3815704294734074"><ele>403.0</ele><time>2026-04-01T08:18:01Z</time></trkpt><trkpt lat="43.09110258475954" lon="-0.38129453812389824"><ele>401.33333333333337</ele><time>2026-04-01T08:18:02Z</time></trkpt><trkpt lat="43.0910797306407" lon="-0.3810310922530843"><ele>399.66666666666663</ele><time>2026-04-01T08:18:03Z</time></trkpt><trkpt lat="43.09107206192535" lon="-0.3807659273528716"><ele>398.0</ele><time>2026-04-01T08:18:04Z</time></trkpt><trkpt lat="43.09110055461366" lon="-0.3804948138742673"><ele>397.3333333333333</ele><time>2026-04-01T08:18:05Z</time></trkpt><trkpt lat="43.09116046068195" lon="-0.380224459159726"><ele>396.66666666666663</ele><time>2026-04-01T08:18:06Z</time></trkpt><trkpt lat="43.09123988654211" lon="-0.3799585727692106"><ele>396.0</ele><time>2026-04-01T08:18:07Z</time></trkpt><trkpt lat="43.09132101939839" lon="-0.37968750351527125"><ele>398.0</ele><time>2026-04-01T08:18:08Z</time></trkpt><trkpt lat="43.091398185313906" lon="-0.3794112360017737"><ele>400.0</ele><time>2026-04-01T08:18:09Z</time></trkpt><trkpt lat="43.09147271288985" lon="-0.3791264140073087"><ele>402.0</ele><time>2026-04-01T08:18:10Z</time></trkpt><trkpt lat="43.091546008927956" lon="-0.3788391489641988"><ele>395.3333333333333</ele><time>2026-04-01T08:18:11Z</time></trkpt><trkpt lat="43.09161604385737" lon="-0.37855321850919443"><ele>388.66666666666663</ele><time>2026-04-01T08:18:12Z</time></trkpt><trkpt lat="43.091684565102014" lon="-0.3782685551497827"><ele>382.0</ele><time>2026-04-01T08:18:13Z</time></trkpt><trkpt lat="43.0917543897032" lon="-0.3779903475460185"><ele>382.0</ele><time>2026-04-01T08:18:14Z</time></trkpt><trkpt lat="43.09182251646009" lon="-0.3777085328401522"><ele>382.0</ele><time>2026-04-01T08:18:15Z</time></trkpt><trkpt lat="43.09188785602672" lon="-0.3774245837595277"><ele>382.0</ele><time>2026-04-01T08:18:16Z</time></trkpt><trkpt lat="43.091948151168765" lon="-0.3771331418000913"><ele>381.0</ele><time>2026-04-01T08:18:17Z</time></trkpt><trkpt lat="43.09199448275513" lon="-0.37683385358529226"><ele>380.0</ele><time>2026-04-01T08:18:18Z</time></trkpt><trkpt lat="43.09203197673291" lon="-0.3765237852441414"><ele>381.0</ele><time>2026-04-01T08:18:19Z</time></trkpt><trkpt lat="43.09206577416286" lon="-0.3762074243047888"><ele>382.0</ele><time>2026-04-01T08:18:20Z</time></trkpt><trkpt lat="43.09209825074831" lon="-0.3758887019176024"><ele>382.0</ele><time>2026-04-01T08:18:21Z</time></trkpt><trkpt lat="43.09213042044493" lon="-0.37559264491187533"><ele>382.0</ele><time>2026-04-01T08:18:22Z</time></trkpt><trkpt lat="43.092159262450814" lon="-0.37528404937283416"><ele>382.0</ele><time>2026-04-01T08:18:23Z</time></trkpt><trkpt lat="43.092187215481374" lon="-0.3749778275758061"><ele>384.0</ele><time>2026-04-01T08:18:24Z</time></trkpt><trkpt lat="43.092216081582" lon="-0.374673296293583"><ele>386.0</ele><time>2026-04-01T08:18:25Z</time></trkpt><trkpt lat="43.0922551146055" lon="-0.3743446112596291"><ele>386.0</ele><time>2026-04-01T08:18:26Z</time></trkpt><trkpt lat="43.09228939778167" lon="-0.3740306287917645"><ele>386.0</ele><time>2026-04-01T08:18:27Z</time></trkpt><trkpt lat="43.0923225770057" lon="-0.3737143006523655"><ele>388.0</ele><time>2026-04-01T08:18:28Z</time></trkpt><trkpt lat="43.0923550748703" lon="-0.3734018793299596"><ele>390.0</ele><time>2026-04-01T08:18:29Z</time></trkpt><trkpt lat="43.092387835116405" lon="-0.37309441160030393"><ele>392.0</ele><time>2026-04-01T08:18:30Z</time></trkpt><trkpt lat="43.09242233912029" lon="-0.37279189184829054"><ele>394.0</ele><time>2026-04-01T08:18:31Z</time></trkpt><trkpt lat="43.092459131069106" lon="-0.37248576055734006"><ele>391.0</ele><time>2026-04-01T08:18:32Z</time></trkpt><trkpt lat="43.09249592498177" lon="-0.37218355341351766"><ele>388.0</ele><time>2026-04-01T08:18:33Z</time></trkpt><trkpt lat="43.09252990159679" lon="-0.37187969373249163"><ele>385.0</ele><time>2026-04-01T08:18:34Z</time></trkpt><trkpt lat="43.092563442734836" lon="-0.3715780549562495"><ele>384.33333333333337</ele><time>2026-04-01T08:18:35Z</time></trkpt><trkpt lat="43.09259387992053" lon="-0.37127606125248575"><ele>383.6666666666667</ele><time>2026-04-01T08:18:36Z</time></trkpt><trkpt lat="43.09263081949963" lon="-0.37097563430002617"><ele>383.0</ele><time>2026-04-01T08:18:37Z</time></trkpt><trkpt lat="43.092677423491864" lon="-0.37067415559294076"><ele>384.5</ele><time>2026-04-01T08:18:38Z</time></trkpt><trkpt lat="43.092737378523125" lon="-0.37037624993158896"><ele>386.0</ele><time>2026-04-01T08:18:39Z</time></trkpt><trkpt lat="43.09281205000556" lon="-0.37007787231191736"><ele>386.0</ele><time>2026-04-01T08:18:40Z</time></trkpt><trkpt lat="43.09289870615183" lon="-0.36978707751931056"><ele>386.0</ele><time>2026-04-01T08:18:41Z</time></trkpt><trkpt lat="43.09298935961599" lon="-0.36949646758080174"><ele>390.0</ele><time>2026-04-01T08:18:42Z</time></trkpt><trkpt lat="43.093078391773325" lon="-0.3692016492307952"><ele>394.0</ele><time>2026-04-01T08:18:43Z</time></trkpt><trkpt lat="43.09316782629712" lon="-0.36890377151982606"><ele>389.0</ele><time>2026-04-01T08:18:44Z</time></trkpt><trkpt lat="43.09325826494417" lon="-0.36860298030973504"><ele>384.0</ele><time>2026-04-01T08:18:45Z</time></trkpt><trkpt lat="43.09334439455041" lon="-0.3682974257376242"><ele>386.66666666666663</ele><time>2026-04-01T08:18:46Z</time></trkpt><trkpt lat="43.09343337726304" lon="-0.36801235404989513"><ele>389.3333333333333</ele><time>2026-04-01T08:18:47Z</time></trkpt><trkpt lat="43.0935072769682" lon="-0.3677699118617459"><ele>392.0</ele><time>2026-04-01T08:18:48Z</time></trkpt><trkpt lat="43.09359264441142" lon="-0.36749343668588547"><ele>392.0</ele><time>2026-04-01T08:18:49Z</time></trkpt><trkpt lat="43.09368095932097" lon="-0.36722103314927695"><ele>392.0</ele><time>2026-04-01T08:18:50Z</time></trkpt><trkpt lat="43.09377511170163" lon="-0.3669530755714052"><ele>392.0</ele><time>2026-04-01T08:18:51Z</time></trkpt><trkpt lat="43.0938747680946" lon="-0.3666883229853894"><ele>394.3333333333333</ele><time>2026-04-01T08:18:52Z</time></trkpt><trkpt lat="43.09398879099628" lon="-0.3664369018574447"><ele>396.66666666666663</ele><time>2026-04-01T08:18:53Z</time></trkpt><trkpt lat="43.09411294468226" lon="-0.3662010280760286"><ele>399.0</ele><time>2026-04-01T08:18:54Z</time></trkpt><trkpt lat="43.094231835092536" lon="-0.3659529297791487"><ele>394.0</ele><time>2026-04-01T08:18:55Z</time></trkpt><trkpt lat="43.09433696619268" lon="-0.3656830146134616"><ele>389.0</ele><time>2026-04-01T08:18:56Z</time></trkpt><trkpt lat="43.09443516715247" lon="-0.3654053743283883"><ele>384.0</ele><time>2026-04-01T08:18:57Z</time></trkpt><trkpt lat="43.09452363964758" lon="-0.3651153761116437"><ele>384.0</ele><time>2026-04-01T08:18:58Z</time></trkpt><trkpt lat="43.09459833890831" lon="-0.3648223886345321"><ele>384.0</ele><time>2026-04-01T08:18:59Z</time></trkpt><trkpt lat="43.09465932782958" lon="-0.3645245528527321"><ele>384.0</ele><time>2026-04-01T08:19:00Z</time></trkpt><trkpt lat="43.09470940904284" lon="-0.36421680513092364"><ele>384.0</ele><time>2026-04-01T08:19:01Z</time></trkpt><trkpt lat="43.09474993433349" lon="-0.3639008920091571"><ele>384.0</ele><time>2026-04-01T08:19:02Z</time></trkpt><trkpt lat="43.09478253923735" lon="-0.3635893586052719"><ele>384.0</ele><time>2026-04-01T08:19:03Z</time></trkpt><trkpt lat="43.09481666748927" lon="-0.3632699996894182"><ele>385.0</ele><time>2026-04-01T08:19:04Z</time></trkpt><trkpt lat="43.09485230316582" lon="-0.36295139589358205"><ele>386.0</ele><time>2026-04-01T08:19:05Z</time></trkpt><trkpt lat="43.09488396234705" lon="-0.36263388635594473"><ele>386.0</ele><time>2026-04-01T08:19:06Z</time></trkpt><trkpt lat="43.094914058361034" lon="-0.3623204682376942"><ele>386.0</ele><time>2026-04-01T08:19:07Z</time></trkpt><trkpt lat="43.09494293518042" lon="-0.3620088436568879"><ele>382.0</ele><time>2026-04-01T08:19:08Z</time></trkpt><trkpt lat="43.09496998935965" lon="-0.3617020287460565"><ele>378.0</ele><time>2026-04-01T08:19:09Z</time></trkpt><trkpt lat="43.09498986246152" lon="-0.3613969839857381"><ele>374.0</ele><time>2026-04-01T08:19:10Z</time></trkpt><trkpt lat="43.09499859560396" lon="-0.36109838455420484"><ele>374.0</ele><time>2026-04-01T08:19:11Z</time></trkpt><trkpt lat="43.094995257239624" lon="-0.36080275342319207"><ele>374.0</ele><time>2026-04-01T08:19:12Z</time></trkpt><trkpt lat="43.094983929107734" lon="-0.3604939365062195"><ele>374.0</ele><time>2026-04-01T08:19:13Z</time></trkpt><trkpt lat="43.09497013128099" lon="-0.3601906657637879"><ele>374.33333333333337</ele><time>2026-04-01T08:19:14Z</time></trkpt><trkpt lat="43.09495444041369" lon="-0.3598928646698623"><ele>374.6666666666667</ele><time>2026-04-01T08:19:15Z</time></trkpt><trkpt lat="43.09493817125829" lon="-0.35959597406232713"><ele>375.0</ele><time>2026-04-01T08:19:16Z</time></trkpt><trkpt lat="43.09494013679389" lon="-0.3592915386286197"><ele>375.0</ele><time>2026-04-01T08:19:17Z</time></trkpt><trkpt lat="43.094967713101305" lon="-0.35899381927528284"><ele>375.0</ele><time>2026-04-01T08:19:18Z</time></trkpt><trkpt lat="43.09500993235648" lon="-0.35869946293931965"><ele>375.0</ele><time>2026-04-01T08:19:19Z</time></trkpt><trkpt lat="43.09505348869302" lon="-0.35839802275399857"><ele>375.3333333333333</ele><time>2026-04-01T08:19:20Z</time></trkpt><trkpt lat="43.095099508320125" lon="-0.358100145614843"><ele>375.66666666666663</ele><time>2026-04-01T08:19:21Z</time></trkpt><trkpt lat="43.095145464888475" lon="-0.3578090161226623"><ele>376.0</ele><time>2026-04-01T08:19:22Z</time></trkpt><trkpt lat="43.09519227885123" lon="-0.35752409094101933"><ele>377.66666666666663</ele><time>2026-04-01T08:19:23Z</time></trkpt><trkpt lat="43.09525408473293" lon="-0.3572570422690902"><ele>379.3333333333333</ele><time>2026-04-01T08:19:24Z</time></trkpt><trkpt lat="43.095332397262865" lon="-0.3569978770697094"><ele>381.0</ele><time>2026-04-01T08:19:25Z</time></trkpt><trkpt lat="43.09543763492431" lon="-0.35674721234828116"><ele>384.0</ele><time>2026-04-01T08:19:26Z</time></trkpt><trkpt lat="43.095569133560666" lon="-0.3565141996557166"><ele>387.0</ele><time>2026-04-01T08:19:27Z</time></trkpt><trkpt lat="43.095722241941814" lon="-0.35628057528544943"><ele>390.0</ele><time>2026-04-01T08:19:28Z</time></trkpt><trkpt lat="43.09589179638369" lon="-0.35606424624155686"><ele>386.3333333333333</ele><time>2026-04-01T08:19:30Z</time></trkpt><trkpt lat="43.09600046692483" lon="-0.3558146759920567"><ele>382.66666666666663</ele><time>2026-04-01T08:19:31Z</time></trkpt><trkpt lat="43.096080064251915" lon="-0.3555838151525386"><ele>379.0</ele><time>2026-04-01T08:19:32Z</time></trkpt><trkpt lat="43.09614398653934" lon="-0.35535963044933927"><ele>379.0</ele><time>2026-04-01T08:19:33Z</time></trkpt><trkpt lat="43.09620063620366" lon="-0.3551168500192096"><ele>379.0</ele><time>2026-04-01T08:19:34Z</time></trkpt><trkpt lat="43.09624265235609" lon="-0.35486549827171876"><ele>379.0</ele><time>2026-04-01T08:19:35Z</time></trkpt><trkpt lat="43.096251691480106" lon="-0.3546016458867108"><ele>380.0</ele><time>2026-04-01T08:19:36Z</time></trkpt><trkpt lat="43.096291249424446" lon="-0.354339356309849"><ele>381.0</ele><time>2026-04-01T08:19:37Z</time></trkpt><trkpt lat="43.09631116398713" lon="-0.35409567595943503"><ele>382.0</ele><time>2026-04-01T08:19:38Z</time></trkpt><trkpt lat="43.09633689435365" lon="-0.3538802777429468"><ele>382.3333333333333</ele><time>2026-04-01T08:19:39Z</time></trkpt><trkpt lat="43.09638088200798" lon="-0.35367886091340445"><ele>382.6666666666667</ele><time>2026-04-01T08:19:40Z</time></trkpt><trkpt lat="43.09645417472327" lon="-0.3534932549222555"><ele>383.0</ele><time>2026-04-01T08:19:41Z</time></trkpt><trkpt lat="43.09655194596711" lon="-0.3533331475714948"><ele>377.6666666666667</ele><time>2026-04-01T08:19:42Z</time></trkpt><trkpt lat="43.09666613464259" lon="-0.3531925792176257"><ele>372.3333333333333</ele><time>2026-04-01T08:19:43Z</time></trkpt><trkpt lat="43.09680044048756" lon="-0.35307951178909025"><ele>367.0</ele><time>2026-04-01T08:19:44Z</time></trkpt><trkpt lat="43.09690057087194" lon="-0.3529156559852121"><ele>367.0</ele><time>2026-04-01T08:19:45Z</time></trkpt><trkpt lat="43.09712575240622" lon="-0.35289816867046087"><ele>367.0</ele><time>2026-04-01T08:19:46Z</time></trkpt><trkpt lat="43.09730636890865" lon="-0.35279606094745136"><ele>367.0</ele><time>2026-04-01T08:19:47Z</time></trkpt><trkpt lat="43.09749443834699" lon="-0.35268444370259144"><ele>362.5</ele><time>2026-04-01T08:19:48Z</time></trkpt><trkpt lat="43.09769974014472" lon="-0.35256370143701454"><ele>358.0</ele><time>2026-04-01T08:19:49Z</time></trkpt><trkpt lat="43.097907947752816" lon="-0.35243927868087455"><ele>358.0</ele><time>2026-04-01T08:19:50Z</time></trkpt><trkpt lat="43.09811941362852" lon="-0.35231498807197614"><ele>358.0</ele><time>2026-04-01T08:19:51Z</time></trkpt><trkpt lat="43.09832048304768" lon="-0.35219385205401393"><ele>357.0</ele><time>2026-04-01T08:19:52Z</time></trkpt><trkpt lat="43.09852652495487" lon="-0.3520852279044009"><ele>356.0</ele><time>2026-04-01T08:19:53Z</time></trkpt><trkpt lat="43.09873335227445" lon="-0.35201209184279214"><ele>355.0</ele><time>2026-04-01T08:19:54Z</time></trkpt><trkpt lat="43.098940836181654" lon="-0.351967741086026"><ele>355.0</ele><time>2026-04-01T08:19:55Z</time></trkpt><trkpt lat="43.09914390180772" lon="-0.35193020742929243"><ele>355.0</ele><time>2026-04-01T08:19:56Z</time></trkpt><trkpt lat="43.09933800922027" lon="-0.35189064251823404"><ele>355.0</ele><time>2026-04-01T08:19:57Z</time></trkpt><trkpt lat="43.099525360746966" lon="-0.3518466254278561"><ele>355.0</ele><time>2026-04-01T08:19:58Z</time></trkpt><trkpt lat="43.09970698418192" lon="-0.35180558131394446"><ele>355.0</ele><time>2026-04-01T08:19:59Z</time></trkpt><trkpt lat="43.099876552462796" lon="-0.3517678220907057"><ele>355.0</ele><time>2026-04-01T08:20:00Z</time></trkpt><trkpt lat="43.10003823039579" lon="-0.35172824024915"><ele>355.3333333333333</ele><time>2026-04-01T08:20:01Z</time></trkpt><trkpt lat="43.10019258341571" lon="-0.3516886654466971"><ele>355.6666666666667</ele><time>2026-04-01T08:20:02Z</time></trkpt><trkpt lat="43.10035192806252" lon="-0.3516535940669335"><ele>356.0</ele><time>2026-04-01T08:20:03Z</time></trkpt><trkpt lat="43.100526938009274" lon="-0.3516326855586636"><ele>356.0</ele><time>2026-04-01T08:20:04Z</time></trkpt><trkpt lat="43.10071981269415" lon="-0.3516435179097075"><ele>356.0</ele><time>2026-04-01T08:20:05Z</time></trkpt><trkpt lat="43.10091792120473" lon="-0.35167967199891353"><ele>356.0</ele><time>2026-04-01T08:20:06Z</time></trkpt><trkpt lat="43.101102795630084" lon="-0.35172348832389433"><ele>356.33333333333337</ele><time>2026-04-01T08:20:07Z</time></trkpt><trkpt lat="43.101300783961555" lon="-0.3517554470838762"><ele>356.6666666666667</ele><time>2026-04-01T08:20:08Z</time></trkpt><trkpt lat="43.10148886185324" lon="-0.3517882635098554"><ele>357.0</ele><time>2026-04-01T08:20:09Z</time></trkpt><trkpt lat="43.10167499596473" lon="-0.3518255271194012"><ele>357.6666666666667</ele><time>2026-04-01T08:20:10Z</time></trkpt><trkpt lat="43.101868644556404" lon="-0.35185103988823524"><ele>358.33333333333337</ele><time>2026-04-01T08:20:11Z</time></trkpt><trkpt lat="43.10206317072506" lon="-0.3518441737861632"><ele>359.0</ele><time>2026-04-01T08:20:12Z</time></trkpt><trkpt lat="43.102246384989826" lon="-0.3518123467693689"><ele>358.6666666666667</ele><time>2026-04-01T08:20:13Z</time></trkpt><trkpt lat="43.10241823800058" lon="-0.35179200705546076"><ele>358.3333333333333</ele><time>2026-04-01T08:20:14Z</time></trkpt><trkpt lat="43.10258454342332" lon="-0.3518207119843078"><ele>358.0</ele><time>2026-04-01T08:20:15Z</time></trkpt><trkpt lat="43.102749867532935" lon="-0.3518963281702465"><ele>358.0</ele><time>2026-04-01T08:20:16Z</time></trkpt><trkpt lat="43.10293150017747" lon="-0.35199063598019825"><ele>358.0</ele><time>2026-04-01T08:20:17Z</time></trkpt><trkpt lat="43.10312650038476" lon="-0.3520709521669047"><ele>358.0</ele><time>2026-04-01T08:20:18Z</time></trkpt><trkpt lat="43.103331131480246" lon="-0.35211249266413197"><ele>357.66666666666663</ele><time>2026-04-01T08:20:19Z</time></trkpt><trkpt lat="43.10353921905846" lon="-0.3521330880321716"><ele>357.3333333333333</ele><time>2026-04-01T08:20:20Z</time></trkpt><trkpt lat="43.10373020988983" lon="-0.35215614808957657"><ele>357.0</ele><time>2026-04-01T08:20:21Z</time></trkpt><trkpt lat="43.10390569450425" lon="-0.3521690601045191"><ele>357.0</ele><time>2026-04-01T08:20:22Z</time></trkpt><trkpt lat="43.10407680248748" lon="-0.3521380762549829"><ele>357.0</ele><time>2026-04-01T08:20:23Z</time></trkpt><trkpt lat="43.10423968875946" lon="-0.3520566723171614"><ele>357.0</ele><time>2026-04-01T08:20:24Z</time></trkpt><trkpt lat="43.1043948047167" lon="-0.3519299970804425"><ele>355.3333333333333</ele><time>2026-04-01T08:20:25Z</time></trkpt><trkpt lat="43.10454039622746" lon="-0.3517634578362667"><ele>353.66666666666663</ele><time>2026-04-01T08:20:26Z</time></trkpt><trkpt lat="43.104673526170814" lon="-0.3515853313221375"><ele>352.0</ele><time>2026-04-01T08:20:27Z</time></trkpt><trkpt lat="43.10481875483659" lon="-0.3514104666700726"><ele>353.3333333333333</ele><time>2026-04-01T08:20:28Z</time></trkpt><trkpt lat="43.10497429495257" lon="-0.3512525352361584"><ele>354.6666666666667</ele><time>2026-04-01T08:20:29Z</time></trkpt><trkpt lat="43.105129248287625" lon="-0.3511048390943059"><ele>356.0</ele><time>2026-04-01T08:20:30Z</time></trkpt><trkpt lat="43.10527371793049" lon="-0.35096989551156044"><ele>356.0</ele><time>2026-04-01T08:20:31Z</time></trkpt><trkpt lat="43.10542307741719" lon="-0.35086184636638634"><ele>356.0</ele><time>2026-04-01T08:20:32Z</time></trkpt><trkpt lat="43.10559775308757" lon="-0.35077712539951883"><ele>356.0</ele><time>2026-04-01T08:20:33Z</time></trkpt><trkpt lat="43.1057850089196" lon="-0.35072629209340705"><ele>354.33333333333337</ele><time>2026-04-01T08:20:34Z</time></trkpt><trkpt lat="43.10597750672484" lon="-0.35070032046111066"><ele>352.6666666666667</ele><time>2026-04-01T08:20:35Z</time></trkpt><trkpt lat="43.10617275855397" lon="-0.35068218586603694"><ele>351.0</ele><time>2026-04-01T08:20:36Z</time></trkpt><trkpt lat="43.1063659888021" lon="-0.350650254313631"><ele>351.0</ele><time>2026-04-01T08:20:37Z</time></trkpt><trkpt lat="43.10655963855162" lon="-0.35061719371412675"><ele>351.0</ele><time>2026-04-01T08:20:38Z</time></trkpt><trkpt lat="43.106737043409716" lon="-0.3505840550391894"><ele>351.0</ele><time>2026-04-01T08:20:39Z</time></trkpt><trkpt lat="43.10690645903052" lon="-0.3505426516472739"><ele>349.3333333333333</ele><time>2026-04-01T08:20:40Z</time></trkpt><trkpt lat="43.107072994116194" lon="-0.3504994781966691"><ele>347.66666666666663</ele><time>2026-04-01T08:20:41Z</time></trkpt><trkpt lat="43.10724287958178" lon="-0.3504605946236301"><ele>346.0</ele><time>2026-04-01T08:20:42Z</time></trkpt><trkpt lat="43.10741470850753" lon="-0.3504326929066819"><ele>345.66666666666663</ele><time>2026-04-01T08:20:43Z</time></trkpt><trkpt lat="43.10758380902615" lon="-0.3504205953357704"><ele>345.3333333333333</ele><time>2026-04-01T08:20:44Z</time></trkpt><trkpt lat="43.1077411826592" lon="-0.3504175874567549"><ele>345.0</ele><time>2026-04-01T08:20:45Z</time></trkpt><trkpt lat="43.10789201724386" lon="-0.3503962997515864"><ele>345.0</ele><time>2026-04-01T08:20:46Z</time></trkpt><trkpt lat="43.10803563875678" lon="-0.3503375209308606"><ele>345.0</ele><time>2026-04-01T08:20:47Z</time></trkpt><trkpt lat="43.10815985821279" lon="-0.3502342681504556"><ele>345.0</ele><time>2026-04-01T08:20:48Z</time></trkpt><trkpt lat="43.10825126344212" lon="-0.3501043126231693"><ele>345.0</ele><time>2026-04-01T08:20:49Z</time></trkpt><trkpt lat="43.108316583258905" lon="-0.34994193146723207"><ele>346.3333333333333</ele><time>2026-04-01T08:20:50Z</time></trkpt><trkpt lat="43.108370664197984" lon="-0.3497484510169507"><ele>347.66666666666663</ele><time>2026-04-01T08:20:51Z</time></trkpt><trkpt lat="43.108422008384395" lon="-0.3495316709653273"><ele>349.0</ele><time>2026-04-01T08:20:52Z</time></trkpt><trkpt lat="43.108495425137015" lon="-0.34932090159467893"><ele>349.0</ele><time>2026-04-01T08:20:53Z</time></trkpt><trkpt lat="43.1085977380652" lon="-0.34912731476474795"><ele>349.0</ele><time>2026-04-01T08:20:54Z</time></trkpt><trkpt lat="43.108726694816085" lon="-0.3489602706370884"><ele>349.0</ele><time>2026-04-01T08:20:55Z</time></trkpt><trkpt lat="43.10887047278272" lon="-0.34880545435175325"><ele>350.0</ele><time>2026-04-01T08:20:56Z</time></trkpt><trkpt lat="43.10900446717814" lon="-0.3486473612466662"><ele>351.0</ele><time>2026-04-01T08:20:57Z</time></trkpt><trkpt lat="43.10910153219824" lon="-0.348452402438187"><ele>352.0</ele><time>2026-04-01T08:20:58Z</time></trkpt><trkpt lat="43.1091581999664" lon="-0.3482438259678172"><ele>349.66666666666663</ele><time>2026-04-01T08:20:59Z</time></trkpt><trkpt lat="43.10920490564001" lon="-0.3480261981421516"><ele>347.3333333333333</ele><time>2026-04-01T08:21:00Z</time></trkpt><trkpt lat="43.10928703340492" lon="-0.347849610412212"><ele>345.0</ele><time>2026-04-01T08:21:01Z</time></trkpt><trkpt lat="43.10940294422512" lon="-0.3476977799826422"><ele>345.0</ele><time>2026-04-01T08:21:02Z</time></trkpt><trkpt lat="43.10952416061548" lon="-0.34756738638551393"><ele>345.0</ele><time>2026-04-01T08:21:03Z</time></trkpt><trkpt lat="43.10961984809889" lon="-0.34741409483691527"><ele>345.0</ele><time>2026-04-01T08:21:04Z</time></trkpt><trkpt lat="43.10967098614104" lon="-0.34722526126647"><ele>345.0</ele><time>2026-04-01T08:21:05Z</time></trkpt><trkpt lat="43.109701818746906" lon="-0.3470040865166231"><ele>345.0</ele><time>2026-04-01T08:21:06Z</time></trkpt><trkpt lat="43.10973785631708" lon="-0.3467586131341101"><ele>345.0</ele><time>2026-04-01T08:21:07Z</time></trkpt><trkpt lat="43.10980032617728" lon="-0.34651332280561975"><ele>345.0</ele><time>2026-04-01T08:21:08Z</time></trkpt><trkpt lat="43.109883619810255" lon="-0.34626896120755885"><ele>345.0</ele><time>2026-04-01T08:21:09Z</time></trkpt><trkpt lat="43.10997121382244" lon="-0.34601822189220793"><ele>345.0</ele><time>2026-04-01T08:21:10Z</time></trkpt><trkpt lat="43.11005485676833" lon="-0.3457566605080459"><ele>345.0</ele><time>2026-04-01T08:21:11Z</time></trkpt><trkpt lat="43.11013615577016" lon="-0.3454881783790144"><ele>344.6666666666667</ele><time>2026-04-01T08:21:12Z</time></trkpt><trkpt lat="43.11021715070326" lon="-0.3452212996848783"><ele>344.33333333333337</ele><time>2026-04-01T08:21:13Z</time></trkpt><trkpt lat="43.11029899793326" lon="-0.3449491807472507"><ele>344.0</ele><time>2026-04-01T08:21:14Z</time></trkpt><trkpt lat="43.11038134088396" lon="-0.34467543190003963"><ele>343.33333333333337</ele><time>2026-04-01T08:21:15Z</time></trkpt><trkpt lat="43.11046320233263" lon="-0.3444136440119487"><ele>342.6666666666667</ele><time>2026-04-01T08:21:16Z</time></trkpt><trkpt lat="43.110556072437305" lon="-0.34416926592659414"><ele>342.0</ele><time>2026-04-01T08:21:17Z</time></trkpt><trkpt lat="43.11066691418268" lon="-0.3439440637320408"><ele>344.3333333333333</ele><time>2026-04-01T08:21:18Z</time></trkpt><trkpt lat="43.11078958248092" lon="-0.34373106500397693"><ele>346.66666666666663</ele><time>2026-04-01T08:21:19Z</time></trkpt><trkpt lat="43.11091762493919" lon="-0.3435199180455622"><ele>349.0</ele><time>2026-04-01T08:21:20Z</time></trkpt><trkpt lat="43.11102969094139" lon="-0.3433122710155955"><ele>349.0</ele><time>2026-04-01T08:21:21Z</time></trkpt><trkpt lat="43.1111235687749" lon="-0.3430918365138983"><ele>349.0</ele><time>2026-04-01T08:21:22Z</time></trkpt><trkpt lat="43.11119042186622" lon="-0.34284877761812976"><ele>349.0</ele><time>2026-04-01T08:21:23Z</time></trkpt><trkpt lat="43.11123086502489" lon="-0.34258449362637844"><ele>347.3333333333333</ele><time>2026-04-01T08:21:24Z</time></trkpt><trkpt lat="43.1112497133436" lon="-0.34231207150448134"><ele>345.6666666666667</ele><time>2026-04-01T08:21:25Z</time></trkpt><trkpt lat="43.111261445808886" lon="-0.34203318487434176"><ele>344.0</ele><time>2026-04-01T08:21:26Z</time></trkpt><trkpt lat="43.1112780942035" lon="-0.3417477820270452"><ele>343.33333333333337</ele><time>2026-04-01T08:21:27Z</time></trkpt><trkpt lat="43.11130294980589" lon="-0.34146429763579655"><ele>342.6666666666667</ele><time>2026-04-01T08:21:28Z</time></trkpt><trkpt lat="43.11132971682019" lon="-0.3411760313096229"><ele>342.0</ele><time>2026-04-01T08:21:29Z</time></trkpt><trkpt lat="43.11135826183991" lon="-0.3408942079721922"><ele>341.3333333333333</ele><time>2026-04-01T08:21:30Z</time></trkpt><trkpt lat="43.11139789439551" lon="-0.3406132931020062"><ele>340.66666666666663</ele><time>2026-04-01T08:21:31Z</time></trkpt><trkpt lat="43.111454348891556" lon="-0.340338687194968"><ele>340.0</ele><time>2026-04-01T08:21:32Z</time></trkpt><trkpt lat="43.11152691711868" lon="-0.3400710982737381"><ele>340.0</ele><time>2026-04-01T08:21:33Z</time></trkpt><trkpt lat="43.11162726666047" lon="-0.33981583988170877"><ele>340.0</ele><time>2026-04-01T08:21:34Z</time></trkpt><trkpt lat="43.11174248554457" lon="-0.33957406746455837"><ele>340.0</ele><time>2026-04-01T08:21:35Z</time></trkpt><trkpt lat="43.11186039810336" lon="-0.339340008310142"><ele>340.0</ele><time>2026-04-01T08:21:36Z</time></trkpt><trkpt lat="43.111967662749535" lon="-0.33910876084191877"><ele>340.0</ele><time>2026-04-01T08:21:37Z</time></trkpt><trkpt lat="43.112064885938175" lon="-0.3388862449470449"><ele>340.0</ele><time>2026-04-01T08:21:38Z</time></trkpt><trkpt lat="43.11215846376332" lon="-0.33867717864246355"><ele>340.0</ele><time>2026-04-01T08:21:39Z</time></trkpt><trkpt lat="43.112247368806145" lon="-0.33848299336820625"><ele>340.0</ele><time>2026-04-01T08:21:40Z</time></trkpt><trkpt lat="43.11231980145135" lon="-0.3382973348949078"><ele>340.0</ele><time>2026-04-01T08:21:41Z</time></trkpt><trkpt lat="43.11237440309914" lon="-0.33809301985098095"><ele>340.0</ele><time>2026-04-01T08:21:42Z</time></trkpt><trkpt lat="43.112397568178295" lon="-0.33788792424500946"><ele>340.0</ele><time>2026-04-01T08:21:43Z</time></trkpt><trkpt lat="43.112390817457715" lon="-0.3376844843281544"><ele>340.0</ele><time>2026-04-01T08:21:44Z</time></trkpt><trkpt lat="43.112352442578675" lon="-0.33747239393832085"><ele>340.0</ele><time>2026-04-01T08:21:45Z</time></trkpt><trkpt lat="43.112284328002346" lon="-0.33726465529752475"><ele>340.0</ele><time>2026-04-01T08:21:46Z</time></trkpt><trkpt lat="43.112188238612845" lon="-0.33705306746513836"><ele>340.0</ele><time>2026-04-01T08:21:47Z</time></trkpt><trkpt lat="43.1120636688209" lon="-0.3368639393542443"><ele>339.66666666666663</ele><time>2026-04-01T08:21:48Z</time></trkpt><trkpt lat="43.11191865508254" lon="-0.33668324583752895"><ele>339.3333333333333</ele><time>2026-04-01T08:21:49Z</time></trkpt><trkpt lat="43.1117710311464" lon="-0.3365264950656334"><ele>339.0</ele><time>2026-04-01T08:21:50Z</time></trkpt><trkpt lat="43.111620365604104" lon="-0.33639630073067944"><ele>338.6666666666667</ele><time>2026-04-01T08:21:51Z</time></trkpt><trkpt lat="43.11147182581694" lon="-0.3362787546980812"><ele>338.33333333333337</ele><time>2026-04-01T08:21:52Z</time></trkpt><trkpt lat="43.11132844355439" lon="-0.3361589663750035"><ele>338.0</ele><time>2026-04-01T08:21:53Z</time></trkpt><trkpt lat="43.1111911221085" lon="-0.33604442588426336"><ele>338.0</ele><time>2026-04-01T08:21:54Z</time></trkpt><trkpt lat="43.111055938648725" lon="-0.3359069407539023"><ele>338.0</ele><time>2026-04-01T08:21:55Z</time></trkpt><trkpt lat="43.11092117891827" lon="-0.3357548122566584"><ele>338.0</ele><time>2026-04-01T08:21:56Z</time></trkpt><trkpt lat="43.11078771518142" lon="-0.3355836280340553"><ele>338.0</ele><time>2026-04-01T08:21:57Z</time></trkpt><trkpt lat="43.11066401263224" lon="-0.33538431126290896"><ele>338.0</ele><time>2026-04-01T08:21:58Z</time></trkpt><trkpt lat="43.11054407890719" lon="-0.33516334232302497"><ele>338.0</ele><time>2026-04-01T08:21:59Z</time></trkpt><trkpt lat="43.11042612223757" lon="-0.33493761682511075"><ele>337.6666666666667</ele><time>2026-04-01T08:22:00Z</time></trkpt><trkpt lat="43.11030490800023" lon="-0.33471638170866513"><ele>337.3333333333333</ele><time>2026-04-01T08:22:01Z</time></trkpt><trkpt lat="43.11018437849848" lon="-0.33449609882747283"><ele>337.0</ele><time>2026-04-01T08:22:02Z</time></trkpt><trkpt lat="43.11007014126007" lon="-0.3342634400467735"><ele>337.0</ele><time>2026-04-01T08:22:03Z</time></trkpt><trkpt lat="43.10996439835254" lon="-0.33402218618759155"><ele>337.0</ele><time>2026-04-01T08:22:04Z</time></trkpt><trkpt lat="43.10986181744798" lon="-0.33377122638743506"><ele>337.0</ele><time>2026-04-01T08:22:05Z</time></trkpt><trkpt lat="43.10976076629647" lon="-0.3335176084746686"><ele>336.3333333333333</ele><time>2026-04-01T08:22:06Z</time></trkpt><trkpt lat="43.10965633612006" lon="-0.33326201611312695"><ele>335.6666666666667</ele><time>2026-04-01T08:22:07Z</time></trkpt><trkpt lat="43.10955399895643" lon="-0.33301101331077076"><ele>335.0</ele><time>2026-04-01T08:22:08Z</time></trkpt><trkpt lat="43.10945666290689" lon="-0.33276202113121917"><ele>335.0</ele><time>2026-04-01T08:22:09Z</time></trkpt><trkpt lat="43.109361501506186" lon="-0.33251470013419704"><ele>335.0</ele><time>2026-04-01T08:22:10Z</time></trkpt><trkpt lat="43.109243760357344" lon="-0.3322435922309954"><ele>335.0</ele><time>2026-04-01T08:22:11Z</time></trkpt><trkpt lat="43.10914044886815" lon="-0.33199010378231325"><ele>334.6666666666667</ele><time>2026-04-01T08:22:12Z</time></trkpt><trkpt lat="43.109037162014666" lon="-0.33173829611995603"><ele>334.3333333333333</ele><time>2026-04-01T08:22:13Z</time></trkpt><trkpt lat="43.10892655270625" lon="-0.3314917415286826"><ele>334.0</ele><time>2026-04-01T08:22:14Z</time></trkpt><trkpt lat="43.108810396870155" lon="-0.3312535264619409"><ele>334.0</ele><time>2026-04-01T08:22:15Z</time></trkpt><trkpt lat="43.10869008548471" lon="-0.33102092591356136"><ele>334.0</ele><time>2026-04-01T08:22:16Z</time></trkpt><trkpt lat="43.10856965381268" lon="-0.3307871786826393"><ele>334.0</ele><time>2026-04-01T08:22:17Z</time></trkpt><trkpt lat="43.10844956034762" lon="-0.3305557452455262"><ele>334.0</ele><time>2026-04-01T08:22:18Z</time></trkpt><trkpt lat="43.10832845713594" lon="-0.3303289920668879"><ele>334.0</ele><time>2026-04-01T08:22:19Z</time></trkpt><trkpt lat="43.10821373820933" lon="-0.33010891163679923"><ele>334.0</ele><time>2026-04-01T08:22:20Z</time></trkpt><trkpt lat="43.10810149063192" lon="-0.32990174003434464"><ele>333.0</ele><time>2026-04-01T08:22:21Z</time></trkpt><trkpt lat="43.10799317219674" lon="-0.32971509248380915"><ele>332.0</ele><time>2026-04-01T08:22:22Z</time></trkpt><trkpt lat="43.10789226288504" lon="-0.32954310851474744"><ele>331.0</ele><time>2026-04-01T08:22:23Z</time></trkpt><trkpt lat="43.10781046886448" lon="-0.3293687713290543"><ele>331.0</ele><time>2026-04-01T08:22:24Z</time></trkpt><trkpt lat="43.10775842954176" lon="-0.3291806082388831"><ele>331.0</ele><time>2026-04-01T08:22:25Z</time></trkpt><trkpt lat="43.107735141995484" lon="-0.3289644032876699"><ele>331.0</ele><time>2026-04-01T08:22:26Z</time></trkpt><trkpt lat="43.10774002262154" lon="-0.32873988460406967"><ele>331.3333333333333</ele><time>2026-04-01T08:22:27Z</time></trkpt><trkpt lat="43.10777354172491" lon="-0.3285137256568063"><ele>331.6666666666667</ele><time>2026-04-01T08:22:28Z</time></trkpt><trkpt lat="43.107838447503916" lon="-0.3282989101334223"><ele>332.0</ele><time>2026-04-01T08:22:29Z</time></trkpt><trkpt lat="43.10793297116704" lon="-0.32810279236357237"><ele>332.33333333333337</ele><time>2026-04-01T08:22:30Z</time></trkpt><trkpt lat="43.10805320612417" lon="-0.3279206823410352"><ele>332.6666666666667</ele><time>2026-04-01T08:22:31Z</time></trkpt><trkpt lat="43.10817860936405" lon="-0.3277424476048107"><ele>333.0</ele><time>2026-04-01T08:22:32Z</time></trkpt><trkpt lat="43.10831778812664" lon="-0.3275799694171831"><ele>333.3333333333333</ele><time>2026-04-01T08:22:33Z</time></trkpt><trkpt lat="43.1084519850403" lon="-0.32742549683528327"><ele>333.66666666666663</ele><time>2026-04-01T08:22:34Z</time></trkpt><trkpt lat="43.10859436866492" lon="-0.32728712659584663"><ele>334.0</ele><time>2026-04-01T08:22:35Z</time></trkpt><trkpt lat="43.10872960602722" lon="-0.3271642798178663"><ele>333.25</ele><time>2026-04-01T08:22:36Z</time></trkpt><trkpt lat="43.10883696679486" lon="-0.3270334267850846"><ele>332.5</ele><time>2026-04-01T08:22:37Z</time></trkpt><trkpt lat="43.108905787393674" lon="-0.3268796042218542"><ele>331.75</ele><time>2026-04-01T08:22:38Z</time></trkpt><trkpt lat="43.108936981298505" lon="-0.3267046249571931"><ele>331.0</ele><time>2026-04-01T08:22:39Z</time></trkpt><trkpt lat="43.10893114557333" lon="-0.3265228184847906"><ele>330.66666666666663</ele><time>2026-04-01T08:22:40Z</time></trkpt><trkpt lat="43.10890362418808" lon="-0.3263296146585833"><ele>330.3333333333333</ele><time>2026-04-01T08:22:41Z</time></trkpt><trkpt lat="43.10886232375801" lon="-0.32611518484568436"><ele>330.0</ele><time>2026-04-01T08:22:42Z</time></trkpt><trkpt lat="43.108819573579176" lon="-0.3258969397859193"><ele>330.0</ele><time>2026-04-01T08:22:43Z</time></trkpt><trkpt lat="43.108797207896615" lon="-0.32567513369388545"><ele>330.0</ele><time>2026-04-01T08:22:44Z</time></trkpt><trkpt lat="43.10880958906899" lon="-0.3254494038290674"><ele>330.0</ele><time>2026-04-01T08:22:45Z</time></trkpt><trkpt lat="43.10885708934502" lon="-0.3252278933636085"><ele>329.6666666666667</ele><time>2026-04-01T08:22:46Z</time></trkpt><trkpt lat="43.10893637690385" lon="-0.3250199796787685"><ele>329.33333333333337</ele><time>2026-04-01T08:22:47Z</time></trkpt><trkpt lat="43.10903896360791" lon="-0.3248303291110654"><ele>329.0</ele><time>2026-04-01T08:22:48Z</time></trkpt><trkpt lat="43.10916479605941" lon="-0.3246714862328146"><ele>329.6666666666667</ele><time>2026-04-01T08:22:49Z</time></trkpt><trkpt lat="43.109313421962945" lon="-0.32454879293457845"><ele>330.3333333333333</ele><time>2026-04-01T08:22:50Z</time></trkpt><trkpt lat="43.10947761684089" lon="-0.3244699720990118"><ele>331.0</ele><time>2026-04-01T08:22:51Z</time></trkpt><trkpt lat="43.10965021719071" lon="-0.3244320551642575"><ele>331.0</ele><time>2026-04-01T08:22:52Z</time></trkpt><trkpt lat="43.10982950991089" lon="-0.3244109229274211"><ele>331.0</ele><time>2026-04-01T08:22:53Z</time></trkpt><trkpt lat="43.11000564135328" lon="-0.32436878622821735"><ele>331.0</ele><time>2026-04-01T08:22:54Z</time></trkpt><trkpt lat="43.11016367512871" lon="-0.3243130564506134"><ele>332.0</ele><time>2026-04-01T08:22:55Z</time></trkpt><trkpt lat="43.110310151444004" lon="-0.3242913125839215"><ele>333.0</ele><time>2026-04-01T08:22:56Z</time></trkpt><trkpt lat="43.11045649965306" lon="-0.3243293208371925"><ele>334.0</ele><time>2026-04-01T08:22:57Z</time></trkpt><trkpt lat="43.1106094730076" lon="-0.32441560118712887"><ele>335.0</ele><time>2026-04-01T08:22:58Z</time></trkpt><trkpt lat="43.1107690936567" lon="-0.3245154625249562"><ele>336.0</ele><time>2026-04-01T08:22:59Z</time></trkpt><trkpt lat="43.110933499082975" lon="-0.32455176592646884"><ele>337.0</ele><time>2026-04-01T08:23:00Z</time></trkpt><trkpt lat="43.11107921444572" lon="-0.324590007669143"><ele>337.0</ele><time>2026-04-01T08:23:01Z</time></trkpt><trkpt lat="43.11121147293013" lon="-0.3245872875816072"><ele>337.0</ele><time>2026-04-01T08:23:02Z</time></trkpt><trkpt lat="43.11132529793592" lon="-0.3245780134042675"><ele>337.0</ele><time>2026-04-01T08:23:03Z</time></trkpt><trkpt lat="43.1114259306585" lon="-0.32455350062366134"><ele>337.0</ele><time>2026-04-01T08:23:04Z</time></trkpt><trkpt lat="43.1115166517037" lon="-0.32449210788630417"><ele>337.0</ele><time>2026-04-01T08:23:05Z</time></trkpt><trkpt lat="43.11159143945834" lon="-0.32438432963170066"><ele>337.0</ele><time>2026-04-01T08:23:06Z</time></trkpt><trkpt lat="43.1116261177623" lon="-0.32423793571001763"><ele>337.0</ele><time>2026-04-01T08:23:07Z</time></trkpt><trkpt lat="43.11158833615668" lon="-0.32407380333934616"><ele>337.0</ele><time>2026-04-01T08:23:08Z</time></trkpt><trkpt lat="43.11152354610037" lon="-0.32391989576567104"><ele>335.66666666666663</ele><time>2026-04-01T08:23:09Z</time></trkpt><trkpt lat="43.11146862797141" lon="-0.3237376441277027"><ele>334.3333333333333</ele><time>2026-04-01T08:23:10Z</time></trkpt><trkpt lat="43.11138878786873" lon="-0.3235512152590944"><ele>333.0</ele><time>2026-04-01T08:23:11Z</time></trkpt><trkpt lat="43.11133855292104" lon="-0.3233289359344559"><ele>333.0</ele><time>2026-04-01T08:23:12Z</time></trkpt><trkpt lat="43.11130434962985" lon="-0.32308470988887467"><ele>333.0</ele><time>2026-04-01T08:23:13Z</time></trkpt><trkpt lat="43.11128769450392" lon="-0.322831588105706"><ele>333.0</ele><time>2026-04-01T08:23:14Z</time></trkpt><trkpt lat="43.11130986914219" lon="-0.32256574905675345"><ele>332.6666666666667</ele><time>2026-04-01T08:23:15Z</time></trkpt><trkpt lat="43.11136304217526" lon="-0.32231728234995005"><ele>332.33333333333337</ele><time>2026-04-01T08:23:16Z</time></trkpt><trkpt lat="43.11142103671553" lon="-0.3220632923546283"><ele>332.0</ele><time>2026-04-01T08:23:17Z</time></trkpt><trkpt lat="43.11149887673427" lon="-0.32180999073214905"><ele>336.6666666666667</ele><time>2026-04-01T08:23:18Z</time></trkpt><trkpt lat="43.111573774877186" lon="-0.3215486281700832"><ele>341.3333333333333</ele><time>2026-04-01T08:23:19Z</time></trkpt><trkpt lat="43.11162329280094" lon="-0.32127868353877737"><ele>346.0</ele><time>2026-04-01T08:23:20Z</time></trkpt><trkpt lat="43.11164628742229" lon="-0.32099412673840116"><ele>346.0</ele><time>2026-04-01T08:23:21Z</time></trkpt><trkpt lat="43.11167523582564" lon="-0.32071359569240604"><ele>346.0</ele><time>2026-04-01T08:23:22Z</time></trkpt><trkpt lat="43.11172695915935" lon="-0.3204423456395421"><ele>346.0</ele><time>2026-04-01T08:23:23Z</time></trkpt><trkpt lat="43.11180583824869" lon="-0.3201739958206356"><ele>345.66666666666663</ele><time>2026-04-01T08:23:24Z</time></trkpt><trkpt lat="43.11191191477258" lon="-0.3199273795047107"><ele>345.3333333333333</ele><time>2026-04-01T08:23:25Z</time></trkpt><trkpt lat="43.11203989346518" lon="-0.3197011675191863"><ele>345.0</ele><time>2026-04-01T08:23:26Z</time></trkpt><trkpt lat="43.11219075454118" lon="-0.31950441315687467"><ele>346.0</ele><time>2026-04-01T08:23:27Z</time></trkpt><trkpt lat="43.112354374751966" lon="-0.31933963230986845"><ele>347.0</ele><time>2026-04-01T08:23:28Z</time></trkpt><trkpt lat="43.112522974968996" lon="-0.3191954666186582"><ele>348.0</ele><time>2026-04-01T08:23:29Z</time></trkpt><trkpt lat="43.112688217310925" lon="-0.3190559015603752"><ele>348.0</ele><time>2026-04-01T08:23:30Z</time></trkpt><trkpt lat="43.11285120221108" lon="-0.3189164877196911"><ele>348.0</ele><time>2026-04-01T08:23:31Z</time></trkpt><trkpt lat="43.11301877572529" lon="-0.31878851863513297"><ele>348.0</ele><time>2026-04-01T08:23:32Z</time></trkpt><trkpt lat="43.11319805259922" lon="-0.31867744535032033"><ele>347.6666666666667</ele><time>2026-04-01T08:23:33Z</time></trkpt><trkpt lat="43.1133728917549" lon="-0.31858704302647667"><ele>347.33333333333337</ele><time>2026-04-01T08:23:34Z</time></trkpt><trkpt lat="43.113535456478104" lon="-0.31851116012297176"><ele>347.0</ele><time>2026-04-01T08:23:35Z</time></trkpt><trkpt lat="43.113678029073576" lon="-0.31845028825407157"><ele>347.0</ele><time>2026-04-01T08:23:36Z</time></trkpt><trkpt lat="43.113810586787935" lon="-0.31840060669475895"><ele>347.0</ele><time>2026-04-01T08:23:37Z</time></trkpt><trkpt lat="43.11394572122847" lon="-0.31835479211080725"><ele>347.0</ele><time>2026-04-01T08:23:38Z</time></trkpt><trkpt lat="43.11407807717163" lon="-0.31831585719899225"><ele>347.0</ele><time>2026-04-01T08:23:39Z</time></trkpt><trkpt lat="43.11420809172439" lon="-0.318280697478083"><ele>346.5</ele><time>2026-04-01T08:23:40Z</time></trkpt><trkpt lat="43.114334985255574" lon="-0.3182554954098405"><ele>346.0</ele><time>2026-04-01T08:23:41Z</time></trkpt><trkpt lat="43.114454827276724" lon="-0.31823760699420633"><ele>345.5</ele><time>2026-04-01T08:23:42Z</time></trkpt><trkpt lat="43.11457016201939" lon="-0.31822058753468946"><ele>345.0</ele><time>2026-04-01T08:23:43Z</time></trkpt><trkpt lat="43.114684791063326" lon="-0.31819826509119425"><ele>345.0</ele><time>2026-04-01T08:23:44Z</time></trkpt><trkpt lat="43.11479396923642" lon="-0.3181790441816951"><ele>345.0</ele><time>2026-04-01T08:23:45Z</time></trkpt><trkpt lat="43.11490375316867" lon="-0.3181637499715267"><ele>345.0</ele><time>2026-04-01T08:23:46Z</time></trkpt><trkpt lat="43.11501473972455" lon="-0.3181484332705532"><ele>345.0</ele><time>2026-04-01T08:23:47Z</time></trkpt><trkpt lat="43.115135224718784" lon="-0.3181286094100353"><ele>344.0</ele><time>2026-04-01T08:23:48Z</time></trkpt><trkpt lat="43.115263230295525" lon="-0.3180887332568396"><ele>343.0</ele><time>2026-04-01T08:23:49Z</time></trkpt><trkpt lat="43.11540592684875" lon="-0.3180222977618389"><ele>342.0</ele><time>2026-04-01T08:23:50Z</time></trkpt><trkpt lat="43.115528530373346" lon="-0.3179103722806387"><ele>341.0</ele><time>2026-04-01T08:23:51Z</time></trkpt><trkpt lat="43.11563387686269" lon="-0.3177608547350261"><ele>340.0</ele><time>2026-04-01T08:23:52Z</time></trkpt><trkpt lat="43.11571689245025" lon="-0.31758993905803723"><ele>339.0</ele><time>2026-04-01T08:23:53Z</time></trkpt><trkpt lat="43.11578032287509" lon="-0.3173919009834146"><ele>338.0</ele><time>2026-04-01T08:23:54Z</time></trkpt><trkpt lat="43.11584942164222" lon="-0.31718365440242485"><ele>337.33333333333337</ele><time>2026-04-01T08:23:55Z</time></trkpt><trkpt lat="43.11593646807638" lon="-0.3169841778900208"><ele>336.6666666666667</ele><time>2026-04-01T08:23:56Z</time></trkpt><trkpt lat="43.11604677856994" lon="-0.31678651615308934"><ele>336.0</ele><time>2026-04-01T08:23:57Z</time></trkpt><trkpt lat="43.11616304152575" lon="-0.3165916933290358"><ele>335.6666666666667</ele><time>2026-04-01T08:23:58Z</time></trkpt><trkpt lat="43.11627351753931" lon="-0.31639581551856166"><ele>335.33333333333337</ele><time>2026-04-01T08:23:59Z</time></trkpt><trkpt lat="43.11638100166384" lon="-0.31619219996746484"><ele>335.0</ele><time>2026-04-01T08:24:00Z</time></trkpt><trkpt lat="43.11648447503046" lon="-0.3159891992377505"><ele>334.6666666666667</ele><time>2026-04-01T08:24:01Z</time></trkpt><trkpt lat="43.1165812734742" lon="-0.315785757233021"><ele>334.3333333333333</ele><time>2026-04-01T08:24:02Z</time></trkpt><trkpt lat="43.11668511301077" lon="-0.3155771497079911"><ele>334.0</ele><time>2026-04-01T08:24:03Z</time></trkpt><trkpt lat="43.11680487244307" lon="-0.3153701437066252"><ele>333.3333333333333</ele><time>2026-04-01T08:24:04Z</time></trkpt><trkpt lat="43.11693444963408" lon="-0.315161011575341"><ele>332.6666666666667</ele><time>2026-04-01T08:24:05Z</time></trkpt><trkpt lat="43.11706737617281" lon="-0.31494336616066737"><ele>332.0</ele><time>2026-04-01T08:24:06Z</time></trkpt><trkpt lat="43.11719953079619" lon="-0.3147238050961203"><ele>331.6666666666667</ele><time>2026-04-01T08:24:07Z</time></trkpt><trkpt lat="43.11733068593046" lon="-0.3145061458953077"><ele>331.3333333333333</ele><time>2026-04-01T08:24:08Z</time></trkpt><trkpt lat="43.1174624628523" lon="-0.31429086422669217"><ele>331.0</ele><time>2026-04-01T08:24:09Z</time></trkpt><trkpt lat="43.117592053373215" lon="-0.3140801561017724"><ele>333.0</ele><time>2026-04-01T08:24:10Z</time></trkpt><trkpt lat="43.117722615511" lon="-0.31386994667724133"><ele>335.0</ele><time>2026-04-01T08:24:11Z</time></trkpt><trkpt lat="43.11785537125604" lon="-0.3136542921131348"><ele>337.0</ele><time>2026-04-01T08:24:12Z</time></trkpt><trkpt lat="43.1179861510055" lon="-0.3134427528739735"><ele>337.0</ele><time>2026-04-01T08:24:13Z</time></trkpt><trkpt lat="43.118123698304636" lon="-0.3132394145297612"><ele>337.0</ele><time>2026-04-01T08:24:14Z</time></trkpt><trkpt lat="43.11826623857484" lon="-0.3130405413833551"><ele>337.0</ele><time>2026-04-01T08:24:15Z</time></trkpt><trkpt lat="43.118402971293165" lon="-0.3128486702007452"><ele>337.0</ele><time>2026-04-01T08:24:16Z</time></trkpt><trkpt lat="43.11852838177768" lon="-0.3126750619093868"><ele>337.0</ele><time>2026-04-01T08:24:17Z</time></trkpt><trkpt lat="43.11865816498784" lon="-0.3125251428333385"><ele>337.0</ele><time>2026-04-01T08:24:18Z</time></trkpt><trkpt lat="43.11881838784018" lon="-0.31238188778372145"><ele>337.0</ele><time>2026-04-01T08:24:19Z</time></trkpt><trkpt lat="43.1189963780697" lon="-0.3122583887276176"><ele>337.0</ele><time>2026-04-01T08:24:20Z</time></trkpt><trkpt lat="43.119167058114066" lon="-0.31215728846185037"><ele>337.0</ele><time>2026-04-01T08:24:21Z</time></trkpt><trkpt lat="43.119319442602595" lon="-0.3120407639272659"><ele>336.0</ele><time>2026-04-01T08:24:22Z</time></trkpt><trkpt lat="43.11945492466122" lon="-0.3118930499694484"><ele>335.0</ele><time>2026-04-01T08:24:23Z</time></trkpt><trkpt lat="43.119584878815616" lon="-0.31170159409739867"><ele>334.0</ele><time>2026-04-01T08:24:24Z</time></trkpt><trkpt lat="43.11970455213219" lon="-0.31149104639423714"><ele>332.66666666666663</ele><time>2026-04-01T08:24:25Z</time></trkpt><trkpt lat="43.11982552896188" lon="-0.3112604719743751"><ele>331.3333333333333</ele><time>2026-04-01T08:24:26Z</time></trkpt><trkpt lat="43.11995170055272" lon="-0.31101787950156734"><ele>330.0</ele><time>2026-04-01T08:24:27Z</time></trkpt><trkpt lat="43.12008797577986" lon="-0.3107809585968457"><ele>329.0</ele><time>2026-04-01T08:24:28Z</time></trkpt><trkpt lat="43.12024316779195" lon="-0.31056884793091427"><ele>328.0</ele><time>2026-04-01T08:24:29Z</time></trkpt><trkpt lat="43.12040949032327" lon="-0.31039380100021635"><ele>327.0</ele><time>2026-04-01T08:24:30Z</time></trkpt><trkpt lat="43.12057835637885" lon="-0.31024679025522306"><ele>327.0</ele><time>2026-04-01T08:24:31Z</time></trkpt><trkpt lat="43.12073457465363" lon="-0.31009031177991303"><ele>327.0</ele><time>2026-04-01T08:24:32Z</time></trkpt><trkpt lat="43.12088108164682" lon="-0.3099033929132321"><ele>327.0</ele><time>2026-04-01T08:24:33Z</time></trkpt><trkpt lat="43.12103071000158" lon="-0.3096994700474257"><ele>327.0</ele><time>2026-04-01T08:24:34Z</time></trkpt><trkpt lat="43.12118631998854" lon="-0.3094929345202071"><ele>327.0</ele><time>2026-04-01T08:24:35Z</time></trkpt><trkpt lat="43.12134122123555" lon="-0.30927898424963574"><ele>327.0</ele><time>2026-04-01T08:24:36Z</time></trkpt><trkpt lat="43.121502397536524" lon="-0.30905904393736466"><ele>323.5</ele><time>2026-04-01T08:24:37Z</time></trkpt><trkpt lat="43.121668564771845" lon="-0.30884995057768283"><ele>320.0</ele><time>2026-04-01T08:24:38Z</time></trkpt><trkpt lat="43.121849918593476" lon="-0.30864803449650086"><ele>320.0</ele><time>2026-04-01T08:24:39Z</time></trkpt><trkpt lat="43.12204276791415" lon="-0.30844712479925884"><ele>320.0</ele><time>2026-04-01T08:24:40Z</time></trkpt><trkpt lat="43.12223678023719" lon="-0.3082487862118594"><ele>319.0</ele><time>2026-04-01T08:24:41Z</time></trkpt><trkpt lat="43.12242781086072" lon="-0.3080508596203521"><ele>318.0</ele><time>2026-04-01T08:24:42Z</time></trkpt><trkpt lat="43.12261619422809" lon="-0.3078507311921579"><ele>318.0</ele><time>2026-04-01T08:24:43Z</time></trkpt><trkpt lat="43.12280458532543" lon="-0.307645820862893"><ele>318.0</ele><time>2026-04-01T08:24:44Z</time></trkpt><trkpt lat="43.12299593195201" lon="-0.30744835767180256"><ele>318.0</ele><time>2026-04-01T08:24:45Z</time></trkpt><trkpt lat="43.123185835764886" lon="-0.3072511996263435"><ele>318.0</ele><time>2026-04-01T08:24:46Z</time></trkpt><trkpt lat="43.12337693294567" lon="-0.3070504897607832"><ele>317.0</ele><time>2026-04-01T08:24:47Z</time></trkpt><trkpt lat="43.12356581981235" lon="-0.30685735264688657"><ele>316.0</ele><time>2026-04-01T08:24:48Z</time></trkpt><trkpt lat="43.1237477936832" lon="-0.3066672545987093"><ele>316.0</ele><time>2026-04-01T08:24:49Z</time></trkpt><trkpt lat="43.12395601648685" lon="-0.30646296755905267"><ele>316.0</ele><time>2026-04-01T08:24:50Z</time></trkpt><trkpt lat="43.123840874081594" lon="-0.30584932461435343"><ele>316.0</ele><time>2026-04-01T08:24:51Z</time></trkpt><trkpt lat="43.12400752288267" lon="-0.30563185910649376"><ele>316.0</ele><time>2026-04-01T08:24:52Z</time></trkpt><trkpt lat="43.12419213024407" lon="-0.30543708784848966"><ele>314.5</ele><time>2026-04-01T08:24:53Z</time></trkpt><trkpt lat="43.124375009913464" lon="-0.30524950746799534"><ele>313.0</ele><time>2026-04-01T08:24:54Z</time></trkpt><trkpt lat="43.124875837770794" lon="-0.305520096833855"><ele>312.66666666666663</ele><time>2026-04-01T08:24:55Z</time></trkpt><trkpt lat="43.12504670019767" lon="-0.30533080994671613"><ele>312.3333333333333</ele><time>2026-04-01T08:24:56Z</time></trkpt><trkpt lat="43.1252210142084" lon="-0.30514096324228007"><ele>312.0</ele><time>2026-04-01T08:24:57Z</time></trkpt><trkpt lat="43.125387575288876" lon="-0.3049611542304608"><ele>312.0</ele><time>2026-04-01T08:24:58Z</time></trkpt><trkpt lat="43.12554578597685" lon="-0.3048125568262183"><ele>312.0</ele><time>2026-04-01T08:24:59Z</time></trkpt><trkpt lat="43.12569390901928" lon="-0.3046872982742082"><ele>312.0</ele><time>2026-04-01T08:25:00Z</time></trkpt><trkpt lat="43.125826465340886" lon="-0.3045826521044365"><ele>312.5</ele><time>2026-04-01T08:25:01Z</time></trkpt><trkpt lat="43.12595766735765" lon="-0.3044923790632834"><ele>313.0</ele><time>2026-04-01T08:25:02Z</time></trkpt><trkpt lat="43.12609415987697" lon="-0.3044328333623955"><ele>313.5</ele><time>2026-04-01T08:25:03Z</time></trkpt><trkpt lat="43.126222839179896" lon="-0.304396583026087"><ele>314.0</ele><time>2026-04-01T08:25:04Z</time></trkpt><trkpt lat="43.12633754132954" lon="-0.3043594421722571"><ele>314.0</ele><time>2026-04-01T08:25:05Z</time></trkpt><trkpt lat="43.12644614874453" lon="-0.3043196438135224"><ele>314.0</ele><time>2026-04-01T08:25:06Z</time></trkpt><trkpt lat="43.12652954276433" lon="-0.30428033447098685"><ele>314.0</ele><time>2026-04-01T08:25:07Z</time></trkpt><trkpt lat="43.12663747703625" lon="-0.30415810205761024"><ele>314.0</ele><time>2026-04-01T08:25:09Z</time></trkpt><trkpt lat="43.12669508005822" lon="-0.30402688816237855"><ele>313.5</ele><time>2026-04-01T08:25:10Z</time></trkpt><trkpt lat="43.12674289899984" lon="-0.303871641413583"><ele>313.0</ele><time>2026-04-01T08:25:11Z</time></trkpt><trkpt lat="43.12678425737091" lon="-0.30372474638058705"><ele>312.5</ele><time>2026-04-01T08:25:12Z</time></trkpt><trkpt lat="43.1268242154378" lon="-0.303584959658103"><ele>312.0</ele><time>2026-04-01T08:25:13Z</time></trkpt><trkpt lat="43.126865540841656" lon="-0.3034546154985261"><ele>312.0</ele><time>2026-04-01T08:25:14Z</time></trkpt><trkpt lat="43.12692113187041" lon="-0.3033467731408866"><ele>312.0</ele><time>2026-04-01T08:25:15Z</time></trkpt><trkpt lat="43.127000862543106" lon="-0.30327869155021964"><ele>312.0</ele><time>2026-04-01T08:25:16Z</time></trkpt><trkpt lat="43.127105130507495" lon="-0.3032350787137824"><ele>312.0</ele><time>2026-04-01T08:25:17Z</time></trkpt><trkpt lat="43.12722994379072" lon="-0.3032039456854682"><ele>312.0</ele><time>2026-04-01T08:25:18Z</time></trkpt><trkpt lat="43.12736107054707" lon="-0.30316972308055645"><ele>312.0</ele><time>2026-04-01T08:25:19Z</time></trkpt><trkpt lat="43.12750570167526" lon="-0.30312347126737865"><ele>312.0</ele><time>2026-04-01T08:25:20Z</time></trkpt><trkpt lat="43.127649573749586" lon="-0.303065720715731"><ele>312.0</ele><time>2026-04-01T08:25:21Z</time></trkpt><trkpt lat="43.12779355256558" lon="-0.30301291144712317"><ele>312.0</ele><time>2026-04-01T08:25:22Z</time></trkpt><trkpt lat="43.12794997613767" lon="-0.30296013027591767"><ele>312.0</ele><time>2026-04-01T08:25:23Z</time></trkpt><trkpt lat="43.12809866426266" lon="-0.30290119268678467"><ele>312.0</ele><time>2026-04-01T08:25:24Z</time></trkpt><trkpt lat="43.12823345278798" lon="-0.30283484742068295"><ele>312.0</ele><time>2026-04-01T08:25:25Z</time></trkpt><trkpt lat="43.1283487242784" lon="-0.30274772507917114"><ele>312.0</ele><time>2026-04-01T08:25:26Z</time></trkpt><trkpt lat="43.12845768578983" lon="-0.30265286510269335"><ele>311.75</ele><time>2026-04-01T08:25:27Z</time></trkpt><trkpt lat="43.128562525929446" lon="-0.3025546844272828"><ele>311.5</ele><time>2026-04-01T08:25:28Z</time></trkpt><trkpt lat="43.1286663213368" lon="-0.3024228035056057"><ele>311.25</ele><time>2026-04-01T08:25:29Z</time></trkpt><trkpt lat="43.128770602426776" lon="-0.3022594504854355"><ele>311.0</ele><time>2026-04-01T08:25:30Z</time></trkpt><trkpt lat="43.12887635191496" lon="-0.3020970005393866"><ele>311.0</ele><time>2026-04-01T08:25:31Z</time></trkpt><trkpt lat="43.128992257293405" lon="-0.30193869493520636"><ele>311.0</ele><time>2026-04-01T08:25:32Z</time></trkpt><trkpt lat="43.12911970805467" lon="-0.3017687198172204"><ele>311.0</ele><time>2026-04-01T08:25:33Z</time></trkpt><trkpt lat="43.12926128455482" lon="-0.30158263972256527"><ele>310.6666666666667</ele><time>2026-04-01T08:25:34Z</time></trkpt><trkpt lat="43.12940612028405" lon="-0.3013837883595047"><ele>310.3333333333333</ele><time>2026-04-01T08:25:35Z</time></trkpt><trkpt lat="43.12954274667811" lon="-0.3012107170828052"><ele>310.0</ele><time>2026-04-01T08:25:36Z</time></trkpt><trkpt lat="43.12968145969504" lon="-0.3010358225266287"><ele>310.0</ele><time>2026-04-01T08:25:37Z</time></trkpt><trkpt lat="43.12982050236209" lon="-0.3008532913617776"><ele>310.0</ele><time>2026-04-01T08:25:38Z</time></trkpt><trkpt lat="43.12996104841253" lon="-0.3006708542487659"><ele>310.0</ele><time>2026-04-01T08:25:39Z</time></trkpt><trkpt lat="43.13009536168185" lon="-0.3004957948311559"><ele>309.3333333333333</ele><time>2026-04-01T08:25:40Z</time></trkpt><trkpt lat="43.130221573172754" lon="-0.3003284924175291"><ele>308.6666666666667</ele><time>2026-04-01T08:25:41Z</time></trkpt><trkpt lat="43.130344027592685" lon="-0.3001553614462967"><ele>308.0</ele><time>2026-04-01T08:25:42Z</time></trkpt><trkpt lat="43.13046013985952" lon="-0.2999809741990741"><ele>308.0</ele><time>2026-04-01T08:25:43Z</time></trkpt><trkpt lat="43.13056947978971" lon="-0.2998033654822813"><ele>308.0</ele><time>2026-04-01T08:25:44Z</time></trkpt><trkpt lat="43.130668945990095" lon="-0.29963405169078894"><ele>308.0</ele><time>2026-04-01T08:25:45Z</time></trkpt><trkpt lat="43.130772311554324" lon="-0.29945721295878863"><ele>308.0</ele><time>2026-04-01T08:25:46Z</time></trkpt><trkpt lat="43.13088708524572" lon="-0.2992560193852658"><ele>308.0</ele><time>2026-04-01T08:25:47Z</time></trkpt><trkpt lat="43.13099241263548" lon="-0.2990425787406671"><ele>308.0</ele><time>2026-04-01T08:25:48Z</time></trkpt><trkpt lat="43.13108956108457" lon="-0.2988207631663538"><ele>308.0</ele><time>2026-04-01T08:25:49Z</time></trkpt><trkpt lat="43.13119467674074" lon="-0.29859602260169216"><ele>308.0</ele><time>2026-04-01T08:25:50Z</time></trkpt><trkpt lat="43.13130060897208" lon="-0.29835387467698576"><ele>308.0</ele><time>2026-04-01T08:25:51Z</time></trkpt><trkpt lat="43.131404438790895" lon="-0.2981039882050888"><ele>307.33333333333337</ele><time>2026-04-01T08:25:52Z</time></trkpt><trkpt lat="43.13149455046124" lon="-0.2978476776995094"><ele>306.6666666666667</ele><time>2026-04-01T08:25:53Z</time></trkpt><trkpt lat="43.131567639317964" lon="-0.29761102371004694"><ele>306.0</ele><time>2026-04-01T08:25:54Z</time></trkpt><trkpt lat="43.13164218333749" lon="-0.29738950506890494"><ele>308.3333333333333</ele><time>2026-04-01T08:25:55Z</time></trkpt><trkpt lat="43.13171118362104" lon="-0.29717775310760103"><ele>310.66666666666663</ele><time>2026-04-01T08:25:56Z</time></trkpt><trkpt lat="43.13177243412885" lon="-0.29696628542822895"><ele>313.0</ele><time>2026-04-01T08:25:57Z</time></trkpt><trkpt lat="43.13181317377967" lon="-0.296760472393363"><ele>313.0</ele><time>2026-04-01T08:25:58Z</time></trkpt><trkpt lat="43.131839831495085" lon="-0.2965614997771081"><ele>313.0</ele><time>2026-04-01T08:25:59Z</time></trkpt><trkpt lat="43.131862602569136" lon="-0.29637846150565245"><ele>313.0</ele><time>2026-04-01T08:26:00Z</time></trkpt><trkpt lat="43.13188243219757" lon="-0.29620595119001886"><ele>313.0</ele><time>2026-04-01T08:26:01Z</time></trkpt><trkpt lat="43.131898555728775" lon="-0.29604553338006895"><ele>313.0</ele><time>2026-04-01T08:26:02Z</time></trkpt><trkpt lat="43.13190958543025" lon="-0.29589182573276746"><ele>313.0</ele><time>2026-04-01T08:26:03Z</time></trkpt><trkpt lat="43.13191735646981" lon="-0.29574058515985824"><ele>313.0</ele><time>2026-04-01T08:26:04Z</time></trkpt><trkpt lat="43.131907020563396" lon="-0.2955783072773479"><ele>313.0</ele><time>2026-04-01T08:26:05Z</time></trkpt><trkpt lat="43.1319084856628" lon="-0.29538003260734474"><ele>313.0</ele><time>2026-04-01T08:26:06Z</time></trkpt><trkpt lat="43.13188463306372" lon="-0.2951992408628938"><ele>313.0</ele><time>2026-04-01T08:26:07Z</time></trkpt><trkpt lat="43.13185061345439" lon="-0.2950227076027994"><ele>313.0</ele><time>2026-04-01T08:26:08Z</time></trkpt><trkpt lat="43.131803350146136" lon="-0.29485230143195357"><ele>313.0</ele><time>2026-04-01T08:26:09Z</time></trkpt><trkpt lat="43.13173448977084" lon="-0.2946758562082981"><ele>312.3333333333333</ele><time>2026-04-01T08:26:10Z</time></trkpt><trkpt lat="43.13163871779241" lon="-0.2944814916562504"><ele>311.6666666666667</ele><time>2026-04-01T08:26:11Z</time></trkpt><trkpt lat="43.13152572807652" lon="-0.2942732558161023"><ele>311.0</ele><time>2026-04-01T08:26:12Z</time></trkpt><trkpt lat="43.13141050753669" lon="-0.29406042994622233"><ele>310.33333333333337</ele><time>2026-04-01T08:26:13Z</time></trkpt><trkpt lat="43.13130148960172" lon="-0.29382011484526466"><ele>309.6666666666667</ele><time>2026-04-01T08:26:14Z</time></trkpt><trkpt lat="43.13119049750668" lon="-0.2935946190614834"><ele>309.0</ele><time>2026-04-01T08:26:15Z</time></trkpt><trkpt lat="43.13110268236991" lon="-0.29336697846623144"><ele>309.0</ele><time>2026-04-01T08:26:16Z</time></trkpt><trkpt lat="43.131046642017544" lon="-0.29312035477499326"><ele>309.0</ele><time>2026-04-01T08:26:17Z</time></trkpt><trkpt lat="43.13101572852352" lon="-0.29286353003005244"><ele>309.0</ele><time>2026-04-01T08:26:18Z</time></trkpt><trkpt lat="43.13099459920434" lon="-0.29260130294752856"><ele>310.6666666666667</ele><time>2026-04-01T08:26:19Z</time></trkpt><trkpt lat="43.130969766326686" lon="-0.29234524055615957"><ele>312.33333333333337</ele><time>2026-04-01T08:26:20Z</time></trkpt><trkpt lat="43.13096504479199" lon="-0.2920874891042153"><ele>314.0</ele><time>2026-04-01T08:26:21Z</time></trkpt><trkpt lat="43.130992625994715" lon="-0.29182986963191326"><ele>314.33333333333337</ele><time>2026-04-01T08:26:22Z</time></trkpt><trkpt lat="43.13104974609131" lon="-0.29157765681403225"><ele>314.6666666666667</ele><time>2026-04-01T08:26:23Z</time></trkpt><trkpt lat="43.13113009515524" lon="-0.2913372612545504"><ele>315.0</ele><time>2026-04-01T08:26:24Z</time></trkpt><trkpt lat="43.13121905691293" lon="-0.2911153844542721"><ele>315.3333333333333</ele><time>2026-04-01T08:26:25Z</time></trkpt><trkpt lat="43.13131457104838" lon="-0.2909034130893893"><ele>315.66666666666663</ele><time>2026-04-01T08:26:26Z</time></trkpt><trkpt lat="43.13140089607365" lon="-0.2907065396994019"><ele>316.0</ele><time>2026-04-01T08:26:27Z</time></trkpt><trkpt lat="43.13148116847588" lon="-0.2904995835774034"><ele>316.3333333333333</ele><time>2026-04-01T08:26:28Z</time></trkpt><trkpt lat="43.131513443163186" lon="-0.2902364399746353"><ele>316.6666666666667</ele><time>2026-04-01T08:26:29Z</time></trkpt><trkpt lat="43.13149005879272" lon="-0.2899509367455683"><ele>317.0</ele><time>2026-04-01T08:26:30Z</time></trkpt><trkpt lat="43.13148972895728" lon="-0.28966295962259964"><ele>317.0</ele><time>2026-04-01T08:26:31Z</time></trkpt><trkpt lat="43.13148097257667" lon="-0.28938041433966244"><ele>317.0</ele><time>2026-04-01T08:26:32Z</time></trkpt><trkpt lat="43.13149678505268" lon="-0.2890980549337473"><ele>317.0</ele><time>2026-04-01T08:26:33Z</time></trkpt><trkpt lat="43.13152823469789" lon="-0.2888093835604781"><ele>319.0</ele><time>2026-04-01T08:26:34Z</time></trkpt><trkpt lat="43.13155750756765" lon="-0.28851042928312626"><ele>321.0</ele><time>2026-04-01T08:26:35Z</time></trkpt><trkpt lat="43.131577304081716" lon="-0.28819643535552014"><ele>317.0</ele><time>2026-04-01T08:26:36Z</time></trkpt><trkpt lat="43.13158425960168" lon="-0.2878750182166673"><ele>313.0</ele><time>2026-04-01T08:26:37Z</time></trkpt><trkpt lat="43.131573682105994" lon="-0.2875466029558577"><ele>311.0</ele><time>2026-04-01T08:26:38Z</time></trkpt><trkpt lat="43.13155095268775" lon="-0.2872130124893824"><ele>309.0</ele><time>2026-04-01T08:26:39Z</time></trkpt><trkpt lat="43.13152261485803" lon="-0.28688657100706777"><ele>309.0</ele><time>2026-04-01T08:26:40Z</time></trkpt><trkpt lat="43.131496008055414" lon="-0.2865562490202302"><ele>309.0</ele><time>2026-04-01T08:26:41Z</time></trkpt><trkpt lat="43.131480687388574" lon="-0.2862274240583792"><ele>308.0</ele><time>2026-04-01T08:26:42Z</time></trkpt><trkpt lat="43.13147991023821" lon="-0.28589216392859834"><ele>307.0</ele><time>2026-04-01T08:26:43Z</time></trkpt><trkpt lat="43.13148672575883" lon="-0.2855669352543617"><ele>306.0</ele><time>2026-04-01T08:26:44Z</time></trkpt><trkpt lat="43.13149734365904" lon="-0.2852390706595508"><ele>305.0</ele><time>2026-04-01T08:26:45Z</time></trkpt><trkpt lat="43.13151360266456" lon="-0.28491400360724656"><ele>303.0</ele><time>2026-04-01T08:26:46Z</time></trkpt><trkpt lat="43.13153204086823" lon="-0.2845909951138479"><ele>301.0</ele><time>2026-04-01T08:26:47Z</time></trkpt><trkpt lat="43.13154829407478" lon="-0.28427249479509453"><ele>300.0</ele><time>2026-04-01T08:26:48Z</time></trkpt><trkpt lat="43.13157141815631" lon="-0.2839540814740933"><ele>299.0</ele><time>2026-04-01T08:26:49Z</time></trkpt><trkpt lat="43.13160334064745" lon="-0.2836450590693411"><ele>297.5</ele><time>2026-04-01T08:26:50Z</time></trkpt><trkpt lat="43.131639178446505" lon="-0.2833327331670605"><ele>296.0</ele><time>2026-04-01T08:26:51Z</time></trkpt><trkpt lat="43.13167428182173" lon="-0.28302480224233667"><ele>296.0</ele><time>2026-04-01T08:26:52Z</time></trkpt><trkpt lat="43.13170687245787" lon="-0.2827171585934541"><ele>296.0</ele><time>2026-04-01T08:26:53Z</time></trkpt><trkpt lat="43.13173483588921" lon="-0.28241739093217466"><ele>296.0</ele><time>2026-04-01T08:26:54Z</time></trkpt><trkpt lat="43.131765414417984" lon="-0.2821174962584659"><ele>296.33333333333337</ele><time>2026-04-01T08:26:55Z</time></trkpt><trkpt lat="43.1318010207136" lon="-0.2818171850041292"><ele>296.6666666666667</ele><time>2026-04-01T08:26:56Z</time></trkpt><trkpt lat="43.131836458132014" lon="-0.2815260610318941"><ele>297.0</ele><time>2026-04-01T08:26:57Z</time></trkpt><trkpt lat="43.13187258402564" lon="-0.28123193433350185"><ele>300.5</ele><time>2026-04-01T08:26:58Z</time></trkpt><trkpt lat="43.13191254546745" lon="-0.2809285606668425"><ele>304.0</ele><time>2026-04-01T08:26:59Z</time></trkpt><trkpt lat="43.13196354467181" lon="-0.28062079965714254"><ele>305.66666666666663</ele><time>2026-04-01T08:27:00Z</time></trkpt><trkpt lat="43.13202067126942" lon="-0.28032663132428787"><ele>307.3333333333333</ele><time>2026-04-01T08:27:01Z</time></trkpt><trkpt lat="43.13205120112389" lon="-0.2800524576502055"><ele>309.0</ele><time>2026-04-01T08:27:02Z</time></trkpt><trkpt lat="43.13204981167841" lon="-0.2797828789439583"><ele>309.3333333333333</ele><time>2026-04-01T08:27:03Z</time></trkpt><trkpt lat="43.131990004721715" lon="-0.2795463530011264"><ele>309.66666666666663</ele><time>2026-04-01T08:27:04Z</time></trkpt><trkpt lat="43.13191619993468" lon="-0.27932625540034717"><ele>310.0</ele><time>2026-04-01T08:27:05Z</time></trkpt><trkpt lat="43.131823926117164" lon="-0.2790900729330098"><ele>309.3333333333333</ele><time>2026-04-01T08:27:06Z</time></trkpt><trkpt lat="43.13173272363797" lon="-0.27882847063196514"><ele>308.6666666666667</ele><time>2026-04-01T08:27:07Z</time></trkpt><trkpt lat="43.13163458851516" lon="-0.2785631643992956"><ele>308.0</ele><time>2026-04-01T08:27:08Z</time></trkpt><trkpt lat="43.13155366145434" lon="-0.2782996715810072"><ele>309.0</ele><time>2026-04-01T08:27:09Z</time></trkpt><trkpt lat="43.131483556114404" lon="-0.27805894380886553"><ele>310.0</ele><time>2026-04-01T08:27:10Z</time></trkpt><trkpt lat="43.13143441270465" lon="-0.27782214633246505"><ele>311.0</ele><time>2026-04-01T08:27:11Z</time></trkpt><trkpt lat="43.13141816586723" lon="-0.2775773110984183"><ele>311.0</ele><time>2026-04-01T08:27:12Z</time></trkpt><trkpt lat="43.13143200532964" lon="-0.27733281049681313"><ele>311.0</ele><time>2026-04-01T08:27:13Z</time></trkpt><trkpt lat="43.13146832433361" lon="-0.2770856501483634"><ele>311.0</ele><time>2026-04-01T08:27:14Z</time></trkpt><trkpt lat="43.13153211801022" lon="-0.27684101541754513"><ele>310.33333333333337</ele><time>2026-04-01T08:27:15Z</time></trkpt><trkpt lat="43.13162336477208" lon="-0.27660072530913493"><ele>309.6666666666667</ele><time>2026-04-01T08:27:16Z</time></trkpt><trkpt lat="43.131732746134766" lon="-0.2763679524301705"><ele>309.0</ele><time>2026-04-01T08:27:17Z</time></trkpt><trkpt lat="43.13185096394414" lon="-0.2761186217615113"><ele>309.0</ele><time>2026-04-01T08:27:18Z</time></trkpt><trkpt lat="43.13196954673614" lon="-0.2758443489497167"><ele>309.0</ele><time>2026-04-01T08:27:19Z</time></trkpt><trkpt lat="43.13208752841611" lon="-0.2755652665948462"><ele>309.6666666666667</ele><time>2026-04-01T08:27:20Z</time></trkpt><trkpt lat="43.132200038189694" lon="-0.27529645197272967"><ele>310.33333333333337</ele><time>2026-04-01T08:27:21Z</time></trkpt><trkpt lat="43.132295927696084" lon="-0.2750489152743067"><ele>311.0</ele><time>2026-04-01T08:27:22Z</time></trkpt><trkpt lat="43.132390820686325" lon="-0.27483108865084277"><ele>311.6666666666667</ele><time>2026-04-01T08:27:23Z</time></trkpt><trkpt lat="43.13249972889709" lon="-0.27461773295880054"><ele>312.3333333333333</ele><time>2026-04-01T08:27:24Z</time></trkpt><trkpt lat="43.13262908376718" lon="-0.27443031003926444"><ele>313.0</ele><time>2026-04-01T08:27:25Z</time></trkpt><trkpt lat="43.132737694861525" lon="-0.2742259247751974"><ele>313.0</ele><time>2026-04-01T08:27:26Z</time></trkpt><trkpt lat="43.132845681453865" lon="-0.2740420279564909"><ele>313.0</ele><time>2026-04-01T08:27:27Z</time></trkpt><trkpt lat="43.13311455031334" lon="-0.27405606008194966"><ele>313.0</ele><time>2026-04-01T08:27:28Z</time></trkpt><trkpt lat="43.13330571618906" lon="-0.27399961306797743"><ele>314.3333333333333</ele><time>2026-04-01T08:27:29Z</time></trkpt><trkpt lat="43.1335096986378" lon="-0.2739770445353097"><ele>315.6666666666667</ele><time>2026-04-01T08:27:30Z</time></trkpt><trkpt lat="43.13371900137696" lon="-0.27397908192421633"><ele>317.0</ele><time>2026-04-01T08:27:31Z</time></trkpt><trkpt lat="43.13392762768189" lon="-0.2739865115119398"><ele>319.33333333333337</ele><time>2026-04-01T08:27:32Z</time></trkpt><trkpt lat="43.13412846622045" lon="-0.2739722658858383"><ele>321.6666666666667</ele><time>2026-04-01T08:27:33Z</time></trkpt><trkpt lat="43.13432279202753" lon="-0.27392993169186364"><ele>324.0</ele><time>2026-04-01T08:27:34Z</time></trkpt><trkpt lat="43.13450919154956" lon="-0.27385080545521007"><ele>324.0</ele><time>2026-04-01T08:27:35Z</time></trkpt><trkpt lat="43.13468470945359" lon="-0.27373724855118003"><ele>324.0</ele><time>2026-04-01T08:27:36Z</time></trkpt><trkpt lat="43.13484403204976" lon="-0.2735901242482417"><ele>324.0</ele><time>2026-04-01T08:27:37Z</time></trkpt><trkpt lat="43.13499645446069" lon="-0.273407436216622"><ele>326.6666666666667</ele><time>2026-04-01T08:27:38Z</time></trkpt><trkpt lat="43.13513750837982" lon="-0.2731924892538454"><ele>329.33333333333337</ele><time>2026-04-01T08:27:39Z</time></trkpt><trkpt lat="43.13527270339764" lon="-0.272955521124031"><ele>332.0</ele><time>2026-04-01T08:27:40Z</time></trkpt><trkpt lat="43.135409974380046" lon="-0.27270583302180246"><ele>332.0</ele><time>2026-04-01T08:27:41Z</time></trkpt><trkpt lat="43.13555614826774" lon="-0.2724616639033681"><ele>332.0</ele><time>2026-04-01T08:27:42Z</time></trkpt><trkpt lat="43.1357054570423" lon="-0.2722265129089269"><ele>333.5</ele><time>2026-04-01T08:27:43Z</time></trkpt><trkpt lat="43.135851341832165" lon="-0.2719905938747291"><ele>335.0</ele><time>2026-04-01T08:27:44Z</time></trkpt><trkpt lat="43.13599369936897" lon="-0.2717416090990611"><ele>335.0</ele><time>2026-04-01T08:27:45Z</time></trkpt><trkpt lat="43.13613984831634" lon="-0.2714864450181511"><ele>335.0</ele><time>2026-04-01T08:27:46Z</time></trkpt><trkpt lat="43.136292520863776" lon="-0.27122595221066825"><ele>335.5</ele><time>2026-04-01T08:27:47Z</time></trkpt><trkpt lat="43.13644295065634" lon="-0.2709665546437602"><ele>336.0</ele><time>2026-04-01T08:27:48Z</time></trkpt><trkpt lat="43.136586731697804" lon="-0.27070386308430483"><ele>335.5</ele><time>2026-04-01T08:27:49Z</time></trkpt><trkpt lat="43.13671848120146" lon="-0.2704261396357909"><ele>335.0</ele><time>2026-04-01T08:27:50Z</time></trkpt><trkpt lat="43.13683826139905" lon="-0.27013938019154304"><ele>335.0</ele><time>2026-04-01T08:27:51Z</time></trkpt><trkpt lat="43.13694629961187" lon="-0.26984365930871573"><ele>335.0</ele><time>2026-04-01T08:27:52Z</time></trkpt><trkpt lat="43.13705745955046" lon="-0.26954860775156364"><ele>335.5</ele><time>2026-04-01T08:27:53Z</time></trkpt><trkpt lat="43.137168012099494" lon="-0.26925649225038983"><ele>336.0</ele><time>2026-04-01T08:27:54Z</time></trkpt><trkpt lat="43.1372797908669" lon="-0.2689611983472769"><ele>336.0</ele><time>2026-04-01T08:27:55Z</time></trkpt><trkpt lat="43.13739009585277" lon="-0.2686725428164532"><ele>336.0</ele><time>2026-04-01T08:27:56Z</time></trkpt><trkpt lat="43.137501685151825" lon="-0.26838033109042964"><ele>336.5</ele><time>2026-04-01T08:27:57Z</time></trkpt><trkpt lat="43.137612236974064" lon="-0.26808937713940645"><ele>337.0</ele><time>2026-04-01T08:27:58Z</time></trkpt><trkpt lat="43.1377209656013" lon="-0.26779983063198054"><ele>337.0</ele><time>2026-04-01T08:27:59Z</time></trkpt><trkpt lat="43.13783074044728" lon="-0.2675123915945917"><ele>337.0</ele><time>2026-04-01T08:28:00Z</time></trkpt><trkpt lat="43.1379414156898" lon="-0.26722400782320155"><ele>337.0</ele><time>2026-04-01T08:28:01Z</time></trkpt><trkpt lat="43.13805377128841" lon="-0.2669351747824718"><ele>337.0</ele><time>2026-04-01T08:28:02Z</time></trkpt><trkpt lat="43.1381646774205" lon="-0.26664861620291264"><ele>335.5</ele><time>2026-04-01T08:28:03Z</time></trkpt><trkpt lat="43.1382747209875" lon="-0.26636144855274135"><ele>334.0</ele><time>2026-04-01T08:28:04Z</time></trkpt><trkpt lat="43.138386182380856" lon="-0.26606920469070333"><ele>334.0</ele><time>2026-04-01T08:28:05Z</time></trkpt><trkpt lat="43.13849573964803" lon="-0.26578042389680434"><ele>334.0</ele><time>2026-04-01T08:28:06Z</time></trkpt><trkpt lat="43.13860395590521" lon="-0.2654908230699748"><ele>333.66666666666663</ele><time>2026-04-01T08:28:07Z</time></trkpt><trkpt lat="43.138707077381355" lon="-0.26520805277947235"><ele>333.3333333333333</ele><time>2026-04-01T08:28:08Z</time></trkpt><trkpt lat="43.138803345621604" lon="-0.26494109521012693"><ele>333.0</ele><time>2026-04-01T08:28:09Z</time></trkpt><trkpt lat="43.13889341781028" lon="-0.26468936662984954"><ele>332.6666666666667</ele><time>2026-04-01T08:28:10Z</time></trkpt><trkpt lat="43.13897924277548" lon="-0.2644444165759792"><ele>332.33333333333337</ele><time>2026-04-01T08:28:11Z</time></trkpt><trkpt lat="43.13905182645079" lon="-0.2642105653447127"><ele>332.0</ele><time>2026-04-01T08:28:12Z</time></trkpt><trkpt lat="43.13910537006098" lon="-0.2639831342614485"><ele>331.6666666666667</ele><time>2026-04-01T08:28:13Z</time></trkpt><trkpt lat="43.13913284023119" lon="-0.26375397857519545"><ele>331.3333333333333</ele><time>2026-04-01T08:28:14Z</time></trkpt><trkpt lat="43.139124327417726" lon="-0.2635211398063716"><ele>331.0</ele><time>2026-04-01T08:28:15Z</time></trkpt><trkpt lat="43.13908490693661" lon="-0.2632769652843997"><ele>331.3333333333333</ele><time>2026-04-01T08:28:16Z</time></trkpt><trkpt lat="43.13902571182912" lon="-0.2630201795788259"><ele>331.6666666666667</ele><time>2026-04-01T08:28:17Z</time></trkpt><trkpt lat="43.138955845711614" lon="-0.2627491205792209"><ele>332.0</ele><time>2026-04-01T08:28:18Z</time></trkpt><trkpt lat="43.138888694600475" lon="-0.2624757130333142"><ele>332.33333333333337</ele><time>2026-04-01T08:28:19Z</time></trkpt><trkpt lat="43.138826941442" lon="-0.2622038151463848"><ele>332.6666666666667</ele><time>2026-04-01T08:28:20Z</time></trkpt><trkpt lat="43.13876519234951" lon="-0.26193879516804985"><ele>333.0</ele><time>2026-04-01T08:28:21Z</time></trkpt><trkpt lat="43.13870413308967" lon="-0.26167880962243323"><ele>333.3333333333333</ele><time>2026-04-01T08:28:22Z</time></trkpt><trkpt lat="43.13864325697313" lon="-0.2614171802076789"><ele>333.66666666666663</ele><time>2026-04-01T08:28:23Z</time></trkpt><trkpt lat="43.138582671911436" lon="-0.2611550653003236"><ele>334.0</ele><time>2026-04-01T08:28:24Z</time></trkpt><trkpt lat="43.13852094200323" lon="-0.26089584665235854"><ele>334.0</ele><time>2026-04-01T08:28:25Z</time></trkpt><trkpt lat="43.13845531646826" lon="-0.26064476605209314"><ele>334.0</ele><time>2026-04-01T08:28:26Z</time></trkpt><trkpt lat="43.138392651621125" lon="-0.26041631955572975"><ele>334.0</ele><time>2026-04-01T08:28:27Z</time></trkpt><trkpt lat="43.13834008001753" lon="-0.2602002300368873"><ele>334.3333333333333</ele><time>2026-04-01T08:28:28Z</time></trkpt><trkpt lat="43.13831105755627" lon="-0.25997857567977894"><ele>334.6666666666667</ele><time>2026-04-01T08:28:29Z</time></trkpt><trkpt lat="43.13831741245121" lon="-0.2597456937723737"><ele>335.0</ele><time>2026-04-01T08:28:30Z</time></trkpt><trkpt lat="43.138353924509154" lon="-0.25950313807460273"><ele>334.33333333333337</ele><time>2026-04-01T08:28:31Z</time></trkpt><trkpt lat="43.138411054535545" lon="-0.2592607968705181"><ele>333.6666666666667</ele><time>2026-04-01T08:28:32Z</time></trkpt><trkpt lat="43.13846632735508" lon="-0.25901528153435516"><ele>333.0</ele><time>2026-04-01T08:28:33Z</time></trkpt><trkpt lat="43.13851319692349" lon="-0.25876068986340023"><ele>332.6666666666667</ele><time>2026-04-01T08:28:34Z</time></trkpt><trkpt lat="43.13855431182825" lon="-0.2584964237349636"><ele>332.33333333333337</ele><time>2026-04-01T08:28:35Z</time></trkpt><trkpt lat="43.13859525583676" lon="-0.2582401911032619"><ele>332.0</ele><time>2026-04-01T08:28:36Z</time></trkpt><trkpt lat="43.13863955452991" lon="-0.25800459183703606"><ele>331.0</ele><time>2026-04-01T08:28:37Z</time></trkpt><trkpt lat="43.13869131078708" lon="-0.2577736649336956"><ele>330.0</ele><time>2026-04-01T08:28:38Z</time></trkpt><trkpt lat="43.138772832673325" lon="-0.2575719177617157"><ele>329.0</ele><time>2026-04-01T08:28:39Z</time></trkpt><trkpt lat="43.13886801518612" lon="-0.2573943211230403"><ele>328.0</ele><time>2026-04-01T08:28:40Z</time></trkpt><trkpt lat="43.1389621788894" lon="-0.2572245698126294"><ele>327.0</ele><time>2026-04-01T08:28:41Z</time></trkpt><trkpt lat="43.13905902858569" lon="-0.2570428921003031"><ele>326.0</ele><time>2026-04-01T08:28:42Z</time></trkpt><trkpt lat="43.13914866438134" lon="-0.2569161953713063"><ele>325.0</ele><time>2026-04-01T08:28:43Z</time></trkpt><trkpt lat="43.1392247032612" lon="-0.2568136682785026"><ele>325.0</ele><time>2026-04-01T08:28:44Z</time></trkpt><trkpt lat="43.13929668711074" lon="-0.2566956708313977"><ele>325.0</ele><time>2026-04-01T08:28:45Z</time></trkpt><trkpt lat="43.139388241678915" lon="-0.25652587231996893"><ele>325.0</ele><time>2026-04-01T08:28:46Z</time></trkpt><trkpt lat="43.13948287352819" lon="-0.25633681786243173"><ele>325.0</ele><time>2026-04-01T08:28:47Z</time></trkpt><trkpt lat="43.139578729103675" lon="-0.2561530713637941"><ele>324.25</ele><time>2026-04-01T08:28:48Z</time></trkpt><trkpt lat="43.13967062072189" lon="-0.2559846124135326"><ele>323.5</ele><time>2026-04-01T08:28:49Z</time></trkpt><trkpt lat="43.13976074121459" lon="-0.2558275576542858"><ele>322.75</ele><time>2026-04-01T08:28:50Z</time></trkpt><trkpt lat="43.13984660616667" lon="-0.25567478021505863"><ele>322.0</ele><time>2026-04-01T08:28:51Z</time></trkpt><trkpt lat="43.13993620626858" lon="-0.2555198087934025"><ele>322.0</ele><time>2026-04-01T08:28:52Z</time></trkpt><trkpt lat="43.14003140827226" lon="-0.25536503035055036"><ele>322.0</ele><time>2026-04-01T08:28:53Z</time></trkpt><trkpt lat="43.14011469473666" lon="-0.2552320796621506"><ele>322.0</ele><time>2026-04-01T08:28:54Z</time></trkpt><trkpt lat="43.140186031219834" lon="-0.2551072291960631"><ele>322.0</ele><time>2026-04-01T08:28:55Z</time></trkpt><trkpt lat="43.140239057959334" lon="-0.2550124483620899"><ele>322.0</ele><time>2026-04-01T08:28:56Z</time></trkpt><trkpt lat="43.140311162987246" lon="-0.25487817643288996"><ele>322.0</ele><time>2026-04-01T08:28:58Z</time></trkpt><trkpt lat="43.14037986075875" lon="-0.25471992792103954"><ele>322.0</ele><time>2026-04-01T08:29:00Z</time></trkpt><trkpt lat="43.140424150581204" lon="-0.2546344039117451"><ele>322.0</ele><time>2026-04-01T08:29:01Z</time></trkpt><trkpt lat="43.14046842478631" lon="-0.2544942141414446"><ele>322.0</ele><time>2026-04-01T08:29:03Z</time></trkpt><trkpt lat="43.140501659716456" lon="-0.2543771243961379"><ele>321.20000000000005</ele><time>2026-04-01T08:29:05Z</time></trkpt><trkpt lat="43.140547112308205" lon="-0.2542549098225574"><ele>320.40000000000003</ele><time>2026-04-01T08:29:07Z</time></trkpt><trkpt lat="43.14058929123988" lon="-0.2541242586441298"><ele>319.6</ele><time>2026-04-01T08:29:09Z</time></trkpt><trkpt lat="43.14063457604593" lon="-0.25398458338161617"><ele>318.8</ele><time>2026-04-01T08:29:11Z</time></trkpt><trkpt lat="43.14067027182484" lon="-0.2538582898916248"><ele>318.0</ele><time>2026-04-01T08:29:13Z</time></trkpt><trkpt lat="43.14067934981571" lon="-0.2537231132852728"><ele>316.8</ele><time>2026-04-01T08:29:15Z</time></trkpt><trkpt lat="43.14064883640533" lon="-0.25354159119428227"><ele>315.6</ele><time>2026-04-01T08:29:17Z</time></trkpt><trkpt lat="43.140617767696966" lon="-0.25341811974180384"><ele>314.4</ele><time>2026-04-01T08:29:18Z</time></trkpt><trkpt lat="43.14058582259718" lon="-0.2533062487994261"><ele>313.2</ele><time>2026-04-01T08:29:19Z</time></trkpt><trkpt lat="43.140569191406406" lon="-0.2531835670298864"><ele>312.0</ele><time>2026-04-01T08:29:20Z</time></trkpt><trkpt lat="43.14056302692987" lon="-0.25304185891991926"><ele>310.0</ele><time>2026-04-01T08:29:21Z</time></trkpt><trkpt lat="43.1405354942081" lon="-0.25284805542621475"><ele>308.0</ele><time>2026-04-01T08:29:22Z</time></trkpt><trkpt lat="43.1405290532356" lon="-0.2525828485685972"><ele>306.0</ele><time>2026-04-01T08:29:23Z</time></trkpt><trkpt lat="43.14053394845062" lon="-0.25226679189559725"><ele>305.3333333333333</ele><time>2026-04-01T08:29:24Z</time></trkpt><trkpt lat="43.14055369042407" lon="-0.25196468486571844"><ele>304.66666666666663</ele><time>2026-04-01T08:29:25Z</time></trkpt><trkpt lat="43.14055786478698" lon="-0.25166789761678726"><ele>304.0</ele><time>2026-04-01T08:29:26Z</time></trkpt><trkpt lat="43.14057953532618" lon="-0.25137746635604297"><ele>303.66666666666663</ele><time>2026-04-01T08:29:27Z</time></trkpt><trkpt lat="43.14060669245346" lon="-0.25108844475954734"><ele>303.3333333333333</ele><time>2026-04-01T08:29:28Z</time></trkpt><trkpt lat="43.14063084195928" lon="-0.2508100711961514"><ele>303.0</ele><time>2026-04-01T08:29:29Z</time></trkpt><trkpt lat="43.140653452418135" lon="-0.2505565852718712"><ele>304.3333333333333</ele><time>2026-04-01T08:29:30Z</time></trkpt><trkpt lat="43.140675839731216" lon="-0.25031730129745733"><ele>305.66666666666663</ele><time>2026-04-01T08:29:31Z</time></trkpt><trkpt lat="43.14071645488683" lon="-0.2500772114292301"><ele>307.0</ele><time>2026-04-01T08:29:32Z</time></trkpt><trkpt lat="43.14079089442466" lon="-0.24984081981695597"><ele>308.66666666666663</ele><time>2026-04-01T08:29:33Z</time></trkpt><trkpt lat="43.14089356956663" lon="-0.24961127115800316"><ele>310.3333333333333</ele><time>2026-04-01T08:29:34Z</time></trkpt><trkpt lat="43.141016436932645" lon="-0.2493695801080055"><ele>312.0</ele><time>2026-04-01T08:29:35Z</time></trkpt><trkpt lat="43.141129466892124" lon="-0.24911338300726174"><ele>314.0</ele><time>2026-04-01T08:29:36Z</time></trkpt><trkpt lat="43.14124650827043" lon="-0.24885139276259"><ele>316.0</ele><time>2026-04-01T08:29:37Z</time></trkpt><trkpt lat="43.141368344846164" lon="-0.24858295997391192"><ele>316.0</ele><time>2026-04-01T08:29:38Z</time></trkpt><trkpt lat="43.14148821362384" lon="-0.24831429793119822"><ele>316.0</ele><time>2026-04-01T08:29:39Z</time></trkpt><trkpt lat="43.14160958861692" lon="-0.2480453164036201"><ele>311.5</ele><time>2026-04-01T08:29:40Z</time></trkpt><trkpt lat="43.141734365570834" lon="-0.2477714204240786"><ele>307.0</ele><time>2026-04-01T08:29:41Z</time></trkpt><trkpt lat="43.14185821498941" lon="-0.24749461866458855"><ele>309.0</ele><time>2026-04-01T08:29:42Z</time></trkpt><trkpt lat="43.141982979500376" lon="-0.24721320738747266"><ele>311.0</ele><time>2026-04-01T08:29:43Z</time></trkpt><trkpt lat="43.14210598147397" lon="-0.24692975392898447"><ele>311.0</ele><time>2026-04-01T08:29:44Z</time></trkpt><trkpt lat="43.14223589674392" lon="-0.24663738785592293"><ele>311.0</ele><time>2026-04-01T08:29:45Z</time></trkpt><trkpt lat="43.14236351068927" lon="-0.24634429310661676"><ele>305.5</ele><time>2026-04-01T08:29:46Z</time></trkpt><trkpt lat="43.14248941252043" lon="-0.24605375766923396"><ele>300.0</ele><time>2026-04-01T08:29:47Z</time></trkpt><trkpt lat="43.1426134632851" lon="-0.24576522446091403"><ele>301.5</ele><time>2026-04-01T08:29:48Z</time></trkpt><trkpt lat="43.14273799441977" lon="-0.24548695259002937"><ele>303.0</ele><time>2026-04-01T08:29:49Z</time></trkpt><trkpt lat="43.14286987437418" lon="-0.24521492164056624"><ele>303.0</ele><time>2026-04-01T08:29:50Z</time></trkpt><trkpt lat="43.143007039731124" lon="-0.2449423513435331"><ele>303.0</ele><time>2026-04-01T08:29:51Z</time></trkpt><trkpt lat="43.143145053469375" lon="-0.2446742532373037"><ele>301.5</ele><time>2026-04-01T08:29:52Z</time></trkpt><trkpt lat="43.14328680925097" lon="-0.24440872218301934"><ele>300.0</ele><time>2026-04-01T08:29:53Z</time></trkpt><trkpt lat="43.1434251370675" lon="-0.24413830646686174"><ele>303.0</ele><time>2026-04-01T08:29:54Z</time></trkpt><trkpt lat="43.14356052152948" lon="-0.24387125794870082"><ele>306.0</ele><time>2026-04-01T08:29:55Z</time></trkpt><trkpt lat="43.14369166616038" lon="-0.2436207207385436"><ele>306.0</ele><time>2026-04-01T08:29:56Z</time></trkpt><trkpt lat="43.14381496119959" lon="-0.2433842458838799"><ele>306.0</ele><time>2026-04-01T08:29:57Z</time></trkpt><trkpt lat="43.143933588475434" lon="-0.24314520717606877"><ele>306.0</ele><time>2026-04-01T08:29:58Z</time></trkpt><trkpt lat="43.144050388928505" lon="-0.24288670103891633"><ele>301.5</ele><time>2026-04-01T08:29:59Z</time></trkpt><trkpt lat="43.14415714469573" lon="-0.24261078736540329"><ele>297.0</ele><time>2026-04-01T08:30:00Z</time></trkpt><trkpt lat="43.144249805037184" lon="-0.24230838236905608"><ele>296.5</ele><time>2026-04-01T08:30:01Z</time></trkpt><trkpt lat="43.14431950615623" lon="-0.24198720481691885"><ele>296.0</ele><time>2026-04-01T08:30:02Z</time></trkpt><trkpt lat="43.14436851212599" lon="-0.24166116694516251"><ele>296.5</ele><time>2026-04-01T08:30:03Z</time></trkpt><trkpt lat="43.144402757942785" lon="-0.24134233933099225"><ele>297.0</ele><time>2026-04-01T08:30:04Z</time></trkpt><trkpt lat="43.144438156181565" lon="-0.24103317347537453"><ele>297.0</ele><time>2026-04-01T08:30:05Z</time></trkpt><trkpt lat="43.14450380501973" lon="-0.24072895620672535"><ele>297.0</ele><time>2026-04-01T08:30:06Z</time></trkpt><trkpt lat="43.14459993291272" lon="-0.24042780898776575"><ele>303.0</ele><time>2026-04-01T08:30:07Z</time></trkpt><trkpt lat="43.14471535926159" lon="-0.24013257692538245"><ele>309.0</ele><time>2026-04-01T08:30:08Z</time></trkpt><trkpt lat="43.14483955290698" lon="-0.23983541344397422"><ele>303.5</ele><time>2026-04-01T08:30:09Z</time></trkpt><trkpt lat="43.14496990460684" lon="-0.23954284061050224"><ele>298.0</ele><time>2026-04-01T08:30:10Z</time></trkpt><trkpt lat="43.14510668806479" lon="-0.23924954124792688"><ele>302.0</ele><time>2026-04-01T08:30:11Z</time></trkpt><trkpt lat="43.14524968759759" lon="-0.23893998376471134"><ele>306.0</ele><time>2026-04-01T08:30:12Z</time></trkpt><trkpt lat="43.14540392442447" lon="-0.2386145159567615"><ele>306.0</ele><time>2026-04-01T08:30:13Z</time></trkpt><trkpt lat="43.145550879844045" lon="-0.23829018335283225"><ele>306.0</ele><time>2026-04-01T08:30:14Z</time></trkpt><trkpt lat="43.145695363987116" lon="-0.23797960479104396"><ele>300.5</ele><time>2026-04-01T08:30:15Z</time></trkpt><trkpt lat="43.14583679248024" lon="-0.23767076788407118"><ele>295.0</ele><time>2026-04-01T08:30:16Z</time></trkpt><trkpt lat="43.14596984781219" lon="-0.23736161178703372"><ele>301.0</ele><time>2026-04-01T08:30:17Z</time></trkpt><trkpt lat="43.14610049234838" lon="-0.237074120008034"><ele>307.0</ele><time>2026-04-01T08:30:18Z</time></trkpt><trkpt lat="43.14625015058894" lon="-0.2368283512231343"><ele>307.0</ele><time>2026-04-01T08:30:19Z</time></trkpt><trkpt lat="43.1464424990311" lon="-0.23660906718715435"><ele>307.0</ele><time>2026-04-01T08:30:20Z</time></trkpt><trkpt lat="43.146639788381904" lon="-0.23639246988960297"><ele>307.3333333333333</ele><time>2026-04-01T08:30:21Z</time></trkpt><trkpt lat="43.146814470641566" lon="-0.23617717894675386"><ele>307.6666666666667</ele><time>2026-04-01T08:30:22Z</time></trkpt><trkpt lat="43.146961554173494" lon="-0.2359719795490499"><ele>308.0</ele><time>2026-04-01T08:30:23Z</time></trkpt><trkpt lat="43.14709054079395" lon="-0.23577613673264108"><ele>309.0</ele><time>2026-04-01T08:30:24Z</time></trkpt><trkpt lat="43.147200594209195" lon="-0.2355893112446264"><ele>310.0</ele><time>2026-04-01T08:30:25Z</time></trkpt><trkpt lat="43.147291393531084" lon="-0.23537310853017138"><ele>311.0</ele><time>2026-04-01T08:30:26Z</time></trkpt><trkpt lat="43.14735847390687" lon="-0.23511471327396696"><ele>306.33333333333337</ele><time>2026-04-01T08:30:27Z</time></trkpt><trkpt lat="43.14738786507537" lon="-0.23482955222711677"><ele>301.6666666666667</ele><time>2026-04-01T08:30:28Z</time></trkpt><trkpt lat="43.14739408425712" lon="-0.2345336315753098"><ele>297.0</ele><time>2026-04-01T08:30:29Z</time></trkpt><trkpt lat="43.14739288383675" lon="-0.2342211130388224"><ele>297.0</ele><time>2026-04-01T08:30:30Z</time></trkpt><trkpt lat="43.147401077187546" lon="-0.23389685340024122"><ele>297.0</ele><time>2026-04-01T08:30:31Z</time></trkpt><trkpt lat="43.14741441362695" lon="-0.2335661624870436"><ele>297.0</ele><time>2026-04-01T08:30:32Z</time></trkpt><trkpt lat="43.14742900788824" lon="-0.23324813566677327"><ele>297.0</ele><time>2026-04-01T08:30:33Z</time></trkpt><trkpt lat="43.14743277895374" lon="-0.23293836649263452"><ele>295.0</ele><time>2026-04-01T08:30:34Z</time></trkpt><trkpt lat="43.14746042381299" lon="-0.2326300499666439"><ele>293.0</ele><time>2026-04-01T08:30:35Z</time></trkpt><trkpt lat="43.14752847218069" lon="-0.23233159081628826"><ele>292.5</ele><time>2026-04-01T08:30:36Z</time></trkpt><trkpt lat="43.14763009518021" lon="-0.23202769654676692"><ele>292.0</ele><time>2026-04-01T08:30:37Z</time></trkpt><trkpt lat="43.14775567867576" lon="-0.23173191180782915"><ele>292.5</ele><time>2026-04-01T08:30:38Z</time></trkpt><trkpt lat="43.14790644510115" lon="-0.23146280763959867"><ele>293.0</ele><time>2026-04-01T08:30:39Z</time></trkpt><trkpt lat="43.1480726324823" lon="-0.23119244174296008"><ele>293.0</ele><time>2026-04-01T08:30:40Z</time></trkpt><trkpt lat="43.14824046951589" lon="-0.23091397302848857"><ele>293.0</ele><time>2026-04-01T08:30:41Z</time></trkpt><trkpt lat="43.14840855558425" lon="-0.2306371713540566"><ele>293.5</ele><time>2026-04-01T08:30:42Z</time></trkpt><trkpt lat="43.14857215194817" lon="-0.23036441389254458"><ele>294.0</ele><time>2026-04-01T08:30:43Z</time></trkpt><trkpt lat="43.14873153628402" lon="-0.23010260014842526"><ele>294.0</ele><time>2026-04-01T08:30:44Z</time></trkpt><trkpt lat="43.14888631283711" lon="-0.22985088487958036"><ele>294.0</ele><time>2026-04-01T08:30:45Z</time></trkpt><trkpt lat="43.1490300805522" lon="-0.2296101775908847"><ele>294.0</ele><time>2026-04-01T08:30:46Z</time></trkpt><trkpt lat="43.14916078965568" lon="-0.22938329639718755"><ele>294.0</ele><time>2026-04-01T08:30:47Z</time></trkpt><trkpt lat="43.14928688402466" lon="-0.2291721415110965"><ele>294.0</ele><time>2026-04-01T08:30:48Z</time></trkpt><trkpt lat="43.14941176239494" lon="-0.22896384736915973"><ele>294.3333333333333</ele><time>2026-04-01T08:30:49Z</time></trkpt><trkpt lat="43.149535948368964" lon="-0.22875019516848336"><ele>294.66666666666663</ele><time>2026-04-01T08:30:50Z</time></trkpt><trkpt lat="43.149662164688536" lon="-0.22854257571091197"><ele>295.0</ele><time>2026-04-01T08:30:51Z</time></trkpt><trkpt lat="43.14978509495459" lon="-0.2283478192938413"><ele>295.0</ele><time>2026-04-01T08:30:52Z</time></trkpt><trkpt lat="43.149898840090934" lon="-0.2281621082475219"><ele>295.0</ele><time>2026-04-01T08:30:53Z</time></trkpt><trkpt lat="43.15000173883821" lon="-0.22798970679880648"><ele>295.0</ele><time>2026-04-01T08:30:54Z</time></trkpt><trkpt lat="43.150097627325714" lon="-0.2278236609809208"><ele>295.0</ele><time>2026-04-01T08:30:55Z</time></trkpt><trkpt lat="43.150184547073636" lon="-0.22766832533570766"><ele>295.0</ele><time>2026-04-01T08:30:56Z</time></trkpt><trkpt lat="43.15027083567536" lon="-0.22752194115966837"><ele>295.0</ele><time>2026-04-01T08:30:57Z</time></trkpt><trkpt lat="43.150365444196446" lon="-0.22736269522555203"><ele>295.0</ele><time>2026-04-01T08:30:58Z</time></trkpt><trkpt lat="43.15048141414458" lon="-0.22717221925744746"><ele>295.0</ele><time>2026-04-01T08:30:59Z</time></trkpt><trkpt lat="43.15060281783316" lon="-0.2269602262112715"><ele>295.0</ele><time>2026-04-01T08:31:00Z</time></trkpt><trkpt lat="43.150728726404346" lon="-0.22674357202207412"><ele>295.0</ele><time>2026-04-01T08:31:01Z</time></trkpt><trkpt lat="43.15085246558242" lon="-0.22653426422014547"><ele>294.3333333333333</ele><time>2026-04-01T08:31:02Z</time></trkpt><trkpt lat="43.150975259871025" lon="-0.22632980056947197"><ele>293.6666666666667</ele><time>2026-04-01T08:31:03Z</time></trkpt><trkpt lat="43.151100455218604" lon="-0.22612517752646918"><ele>293.0</ele><time>2026-04-01T08:31:04Z</time></trkpt><trkpt lat="43.1512205591683" lon="-0.2259221527430166"><ele>293.0</ele><time>2026-04-01T08:31:05Z</time></trkpt><trkpt lat="43.15132836033173" lon="-0.2257370029949923"><ele>293.0</ele><time>2026-04-01T08:31:06Z</time></trkpt><trkpt lat="43.15142983852082" lon="-0.22556008699445734"><ele>293.0</ele><time>2026-04-01T08:31:07Z</time></trkpt><trkpt lat="43.15152096275275" lon="-0.22540431611000128"><ele>293.0</ele><time>2026-04-01T08:31:08Z</time></trkpt><trkpt lat="43.151596580566036" lon="-0.22526976966375703"><ele>293.0</ele><time>2026-04-01T08:31:09Z</time></trkpt><trkpt lat="43.15165458013956" lon="-0.2251471994190363"><ele>293.0</ele><time>2026-04-01T08:31:10Z</time></trkpt><trkpt lat="43.15169442816032" lon="-0.22503753429147744"><ele>293.0</ele><time>2026-04-01T08:31:11Z</time></trkpt><trkpt lat="43.151712619604425" lon="-0.22494301829950714"><ele>293.0</ele><time>2026-04-01T08:31:12Z</time></trkpt><trkpt lat="43.151712071951884" lon="-0.224850581952595"><ele>293.25</ele><time>2026-04-01T08:31:14Z</time></trkpt><trkpt lat="43.151605288563815" lon="-0.22470959051692604"><ele>293.5</ele><time>2026-04-01T08:31:19Z</time></trkpt><trkpt lat="43.15152220006425" lon="-0.2246240339659381"><ele>293.75</ele><time>2026-04-01T08:31:20Z</time></trkpt><trkpt lat="43.151425350915325" lon="-0.22453606054854539"><ele>294.0</ele><time>2026-04-01T08:31:21Z</time></trkpt><trkpt lat="43.151301385119254" lon="-0.22442165294236757"><ele>294.0</ele><time>2026-04-01T08:31:22Z</time></trkpt><trkpt lat="43.15118667864218" lon="-0.22430761736801366"><ele>294.0</ele><time>2026-04-01T08:31:23Z</time></trkpt><trkpt lat="43.15107058830827" lon="-0.22418946020512653"><ele>294.0</ele><time>2026-04-01T08:31:24Z</time></trkpt><trkpt lat="43.15093513209766" lon="-0.22405505354240773"><ele>293.6666666666667</ele><time>2026-04-01T08:31:25Z</time></trkpt><trkpt lat="43.150778409728524" lon="-0.22390167500533628"><ele>293.33333333333337</ele><time>2026-04-01T08:31:26Z</time></trkpt><trkpt lat="43.15060931890913" lon="-0.22374380727995938"><ele>293.0</ele><time>2026-04-01T08:31:27Z</time></trkpt><trkpt lat="43.15043459031771" lon="-0.22357549037316404"><ele>293.0</ele><time>2026-04-01T08:31:28Z</time></trkpt><trkpt lat="43.150238801619054" lon="-0.22339230501459656"><ele>293.0</ele><time>2026-04-01T08:31:29Z</time></trkpt><trkpt lat="43.15003081070177" lon="-0.22320284062569787"><ele>292.5</ele><time>2026-04-01T08:31:30Z</time></trkpt><trkpt lat="43.14985453823115" lon="-0.2229925101097232"><ele>292.0</ele><time>2026-04-01T08:31:31Z</time></trkpt><trkpt lat="43.14965827108267" lon="-0.2227807420990473"><ele>292.0</ele><time>2026-04-01T08:31:32Z</time></trkpt><trkpt lat="43.1494397124267" lon="-0.22259085121547062"><ele>292.0</ele><time>2026-04-01T08:31:33Z</time></trkpt><trkpt lat="43.14921315867413" lon="-0.22241761238117627"><ele>293.0</ele><time>2026-04-01T08:31:34Z</time></trkpt><trkpt lat="43.14898393952902" lon="-0.22225014467189483"><ele>294.0</ele><time>2026-04-01T08:31:35Z</time></trkpt><trkpt lat="43.148747477385726" lon="-0.22209805896750703"><ele>294.0</ele><time>2026-04-01T08:31:36Z</time></trkpt><trkpt lat="43.14849299744058" lon="-0.22194447647714696"><ele>294.0</ele><time>2026-04-01T08:31:37Z</time></trkpt><trkpt lat="43.148222303427055" lon="-0.2217852542231982"><ele>293.0</ele><time>2026-04-01T08:31:38Z</time></trkpt><trkpt lat="43.14794153361596" lon="-0.22162045075409878"><ele>292.0</ele><time>2026-04-01T08:31:39Z</time></trkpt><trkpt lat="43.14766205034301" lon="-0.22145208220612617"><ele>290.0</ele><time>2026-04-01T08:31:40Z</time></trkpt><trkpt lat="43.14737765083895" lon="-0.22128419203695476"><ele>288.0</ele><time>2026-04-01T08:31:41Z</time></trkpt><trkpt lat="43.147094863168974" lon="-0.22111645931835183"><ele>288.0</ele><time>2026-04-01T08:31:42Z</time></trkpt><trkpt lat="43.146812763874614" lon="-0.22095039929628382"><ele>288.0</ele><time>2026-04-01T08:31:43Z</time></trkpt><trkpt lat="43.14653639158692" lon="-0.22078308675326774"><ele>288.5</ele><time>2026-04-01T08:31:44Z</time></trkpt><trkpt lat="43.14625931873278" lon="-0.2206142900001018"><ele>289.0</ele><time>2026-04-01T08:31:45Z</time></trkpt><trkpt lat="43.145986188414035" lon="-0.22044923364048077"><ele>289.0</ele><time>2026-04-01T08:31:46Z</time></trkpt><trkpt lat="43.14572000898686" lon="-0.22028333050160664"><ele>289.0</ele><time>2026-04-01T08:31:47Z</time></trkpt><trkpt lat="43.14546103698892" lon="-0.2201290984519251"><ele>288.5</ele><time>2026-04-01T08:31:48Z</time></trkpt><trkpt lat="43.14521131209411" lon="-0.21998229130927205"><ele>288.0</ele><time>2026-04-01T08:31:49Z</time></trkpt><trkpt lat="43.14497135028632" lon="-0.21983543258424715"><ele>288.5</ele><time>2026-04-01T08:31:50Z</time></trkpt><trkpt lat="43.14473257989745" lon="-0.21967852987425737"><ele>289.0</ele><time>2026-04-01T08:31:51Z</time></trkpt><trkpt lat="43.14449270825782" lon="-0.21952359848111602"><ele>289.0</ele><time>2026-04-01T08:31:52Z</time></trkpt><trkpt lat="43.14425275142048" lon="-0.21937157097567445"><ele>289.0</ele><time>2026-04-01T08:31:53Z</time></trkpt><trkpt lat="43.14401153622924" lon="-0.21922369422970714"><ele>289.0</ele><time>2026-04-01T08:31:54Z</time></trkpt><trkpt lat="43.143761656398055" lon="-0.21909070555224422"><ele>289.0</ele><time>2026-04-01T08:31:55Z</time></trkpt><trkpt lat="43.143505871424466" lon="-0.2189447919697507"><ele>289.0</ele><time>2026-04-01T08:31:56Z</time></trkpt><trkpt lat="43.143250784813986" lon="-0.21879108495073293"><ele>289.0</ele><time>2026-04-01T08:31:57Z</time></trkpt><trkpt lat="43.14299951904037" lon="-0.21863845021229134"><ele>289.0</ele><time>2026-04-01T08:31:58Z</time></trkpt><trkpt lat="43.14274581983072" lon="-0.2184833438719683"><ele>289.0</ele><time>2026-04-01T08:31:59Z</time></trkpt><trkpt lat="43.142504550032385" lon="-0.21833302919283273"><ele>289.5</ele><time>2026-04-01T08:32:00Z</time></trkpt><trkpt lat="43.14225196246605" lon="-0.21818152201243718"><ele>290.0</ele><time>2026-04-01T08:32:01Z</time></trkpt><trkpt lat="43.142005776537225" lon="-0.21803839072577066"><ele>290.0</ele><time>2026-04-01T08:32:02Z</time></trkpt><trkpt lat="43.14175734919339" lon="-0.21789115402644657"><ele>290.0</ele><time>2026-04-01T08:32:03Z</time></trkpt><trkpt lat="43.14151374305757" lon="-0.2177405245611529"><ele>291.0</ele><time>2026-04-01T08:32:04Z</time></trkpt><trkpt lat="43.14126865603376" lon="-0.2175877639617376"><ele>292.0</ele><time>2026-04-01T08:32:05Z</time></trkpt><trkpt lat="43.141021003027724" lon="-0.21743394870118796"><ele>291.5</ele><time>2026-04-01T08:32:06Z</time></trkpt><trkpt lat="43.14077734386902" lon="-0.21728195189520808"><ele>291.0</ele><time>2026-04-01T08:32:07Z</time></trkpt><trkpt lat="43.14052950084269" lon="-0.21712643764406858"><ele>291.0</ele><time>2026-04-01T08:32:08Z</time></trkpt><trkpt lat="43.14028089029924" lon="-0.2169703482120112"><ele>291.0</ele><time>2026-04-01T08:32:09Z</time></trkpt><trkpt lat="43.14003032152133" lon="-0.2168117142349223"><ele>291.0</ele><time>2026-04-01T08:32:10Z</time></trkpt><trkpt lat="43.13977919241586" lon="-0.21665215898794657"><ele>291.0</ele><time>2026-04-01T08:32:11Z</time></trkpt><trkpt lat="43.13952519043768" lon="-0.21649438511375174"><ele>291.0</ele><time>2026-04-01T08:32:12Z</time></trkpt><trkpt lat="43.13927105843827" lon="-0.2163378281072296"><ele>291.0</ele><time>2026-04-01T08:32:13Z</time></trkpt><trkpt lat="43.1390199417792" lon="-0.2161826251203143"><ele>292.5</ele><time>2026-04-01T08:32:14Z</time></trkpt><trkpt lat="43.13877022254079" lon="-0.2160284393468336"><ele>294.0</ele><time>2026-04-01T08:32:15Z</time></trkpt><trkpt lat="43.138519185855735" lon="-0.21587494705982727"><ele>294.0</ele><time>2026-04-01T08:32:16Z</time></trkpt><trkpt lat="43.13826825325039" lon="-0.21572323847209232"><ele>294.0</ele><time>2026-04-01T08:32:17Z</time></trkpt><trkpt lat="43.13801911046392" lon="-0.21556494925814576"><ele>293.0</ele><time>2026-04-01T08:32:18Z</time></trkpt><trkpt lat="43.137767798874236" lon="-0.21540881164336123"><ele>292.0</ele><time>2026-04-01T08:32:19Z</time></trkpt><trkpt lat="43.137516940645014" lon="-0.21524899547072343"><ele>293.5</ele><time>2026-04-01T08:32:20Z</time></trkpt><trkpt lat="43.13726803767127" lon="-0.21509436578127233"><ele>295.0</ele><time>2026-04-01T08:32:21Z</time></trkpt><trkpt lat="43.137019062658986" lon="-0.21493958532513419"><ele>294.0</ele><time>2026-04-01T08:32:22Z</time></trkpt><trkpt lat="43.13677863259337" lon="-0.21479357506869218"><ele>293.0</ele><time>2026-04-01T08:32:23Z</time></trkpt><trkpt lat="43.136558614462196" lon="-0.21465759153983524"><ele>293.6666666666667</ele><time>2026-04-01T08:32:24Z</time></trkpt><trkpt lat="43.136357709867156" lon="-0.21453624921009537"><ele>294.3333333333333</ele><time>2026-04-01T08:32:25Z</time></trkpt><trkpt lat="43.13617948736025" lon="-0.21442838849578721"><ele>295.0</ele><time>2026-04-01T08:32:26Z</time></trkpt><trkpt lat="43.136008656420074" lon="-0.21433010272493194"><ele>295.0</ele><time>2026-04-01T08:32:27Z</time></trkpt><trkpt lat="43.13584861987823" lon="-0.21424390175261604"><ele>295.0</ele><time>2026-04-01T08:32:28Z</time></trkpt><trkpt lat="43.13571041117533" lon="-0.21417086370906246"><ele>295.0</ele><time>2026-04-01T08:32:29Z</time></trkpt><trkpt lat="43.13558466221144" lon="-0.2141183943635879"><ele>295.5</ele><time>2026-04-01T08:32:30Z</time></trkpt><trkpt lat="43.13545524426783" lon="-0.21407224030193317"><ele>296.0</ele><time>2026-04-01T08:32:31Z</time></trkpt><trkpt lat="43.13533325167193" lon="-0.2139878518621288"><ele>296.5</ele><time>2026-04-01T08:32:32Z</time></trkpt><trkpt lat="43.1352034522691" lon="-0.21384679558295863"><ele>297.0</ele><time>2026-04-01T08:32:33Z</time></trkpt><trkpt lat="43.13505279974757" lon="-0.21370606749928867"><ele>297.3333333333333</ele><time>2026-04-01T08:32:34Z</time></trkpt><trkpt lat="43.13489053105926" lon="-0.21357367013623113"><ele>297.66666666666663</ele><time>2026-04-01T08:32:35Z</time></trkpt><trkpt lat="43.134747198635765" lon="-0.21345266171412616"><ele>298.0</ele><time>2026-04-01T08:32:36Z</time></trkpt><trkpt lat="43.13461671416294" lon="-0.21333962202162354"><ele>298.5</ele><time>2026-04-01T08:32:37Z</time></trkpt><trkpt lat="43.1344929112069" lon="-0.2132327121118311"><ele>299.0</ele><time>2026-04-01T08:32:38Z</time></trkpt><trkpt lat="43.1343678025282" lon="-0.2131210567564811"><ele>299.5</ele><time>2026-04-01T08:32:39Z</time></trkpt><trkpt lat="43.1342410090068" lon="-0.213006486831905"><ele>300.0</ele><time>2026-04-01T08:32:40Z</time></trkpt><trkpt lat="43.134110456129406" lon="-0.21289334214804229"><ele>299.0</ele><time>2026-04-01T08:32:41Z</time></trkpt><trkpt lat="43.13397195716558" lon="-0.21277884383691986"><ele>298.0</ele><time>2026-04-01T08:32:42Z</time></trkpt><trkpt lat="43.133831567992054" lon="-0.21266857547915632"><ele>297.0</ele><time>2026-04-01T08:32:43Z</time></trkpt><trkpt lat="43.133687211918904" lon="-0.21255182003372122"><ele>297.0</ele><time>2026-04-01T08:32:44Z</time></trkpt><trkpt lat="43.133543213215845" lon="-0.21243586231995512"><ele>297.0</ele><time>2026-04-01T08:32:45Z</time></trkpt><trkpt lat="43.1333926511098" lon="-0.21231554349952517"><ele>297.0</ele><time>2026-04-01T08:32:46Z</time></trkpt><trkpt lat="43.13324577693791" lon="-0.21219204488689725"><ele>296.6666666666667</ele><time>2026-04-01T08:32:47Z</time></trkpt><trkpt lat="43.13309872181251" lon="-0.2120629786688887"><ele>296.33333333333337</ele><time>2026-04-01T08:32:48Z</time></trkpt><trkpt lat="43.13295383589201" lon="-0.2119375026551928"><ele>296.0</ele><time>2026-04-01T08:32:49Z</time></trkpt><trkpt lat="43.13280899457858" lon="-0.21181421871897235"><ele>296.0</ele><time>2026-04-01T08:32:50Z</time></trkpt><trkpt lat="43.132671498147744" lon="-0.21169995331577798"><ele>296.0</ele><time>2026-04-01T08:32:51Z</time></trkpt><trkpt lat="43.13254128163482" lon="-0.21159273611564278"><ele>296.0</ele><time>2026-04-01T08:32:52Z</time></trkpt><trkpt lat="43.132413399273474" lon="-0.21148975363699937"><ele>297.75</ele><time>2026-04-01T08:32:53Z</time></trkpt><trkpt lat="43.132282455366486" lon="-0.21138704430436164"><ele>299.5</ele><time>2026-04-01T08:32:54Z</time></trkpt><trkpt lat="43.1321496257709" lon="-0.21128838381047918"><ele>301.25</ele><time>2026-04-01T08:32:55Z</time></trkpt><trkpt lat="43.13201923963125" lon="-0.21119586674277624"><ele>303.0</ele><time>2026-04-01T08:32:56Z</time></trkpt><trkpt lat="43.131900128288855" lon="-0.21109998481282957"><ele>303.0</ele><time>2026-04-01T08:32:57Z</time></trkpt><trkpt lat="43.13180170570175" lon="-0.21099517933962988"><ele>303.0</ele><time>2026-04-01T08:32:58Z</time></trkpt><trkpt lat="43.13172052408919" lon="-0.21087353061697023"><ele>303.0</ele><time>2026-04-01T08:32:59Z</time></trkpt><trkpt lat="43.13164842034551" lon="-0.21073104761241523"><ele>303.0</ele><time>2026-04-01T08:33:00Z</time></trkpt><trkpt lat="43.131578828599224" lon="-0.21057942827133344"><ele>304.0</ele><time>2026-04-01T08:33:01Z</time></trkpt><trkpt lat="43.13152037562393" lon="-0.21043789272028524"><ele>305.0</ele><time>2026-04-01T08:33:02Z</time></trkpt><trkpt lat="43.131468525911245" lon="-0.2103100358497293"><ele>306.0</ele><time>2026-04-01T08:33:03Z</time></trkpt><trkpt lat="43.13142485542548" lon="-0.21018950170848535"><ele>307.0</ele><time>2026-04-01T08:33:04Z</time></trkpt><trkpt lat="43.13138158549767" lon="-0.2100782791552865"><ele>308.0</ele><time>2026-04-01T08:33:05Z</time></trkpt><trkpt lat="43.131324147460724" lon="-0.2099645466481615"><ele>308.0</ele><time>2026-04-01T08:33:06Z</time></trkpt><trkpt lat="43.1312447684144" lon="-0.20984897520593251"><ele>308.0</ele><time>2026-04-01T08:33:07Z</time></trkpt><trkpt lat="43.131169478469744" lon="-0.20976020126864514"><ele>308.0</ele><time>2026-04-01T08:33:08Z</time></trkpt><trkpt lat="43.131095109597176" lon="-0.209691432813412"><ele>308.0</ele><time>2026-04-01T08:33:09Z</time></trkpt><trkpt lat="43.13103193273006" lon="-0.2096432120007674"><ele>308.0</ele><time>2026-04-01T08:33:10Z</time></trkpt><trkpt lat="43.130975555481186" lon="-0.20959405397781586"><ele>308.0</ele><time>2026-04-01T08:33:11Z</time></trkpt><trkpt lat="43.130901808044484" lon="-0.2095541699808535"><ele>308.0</ele><time>2026-04-01T08:33:13Z</time></trkpt><trkpt lat="43.13080098265151" lon="-0.20947095731478302"><ele>308.0</ele><time>2026-04-01T08:33:15Z</time></trkpt><trkpt lat="43.13072539789685" lon="-0.20940757845002136"><ele>308.0</ele><time>2026-04-01T08:33:16Z</time></trkpt><trkpt lat="43.1306734411406" lon="-0.2093381207213247"><ele>308.0</ele><time>2026-04-01T08:33:17Z</time></trkpt><trkpt lat="43.130609256114475" lon="-0.20929892285853624"><ele>308.0</ele><time>2026-04-01T08:33:18Z</time></trkpt><trkpt lat="43.1305345333528" lon="-0.2092402853114533"><ele>308.0</ele><time>2026-04-01T08:33:19Z</time></trkpt><trkpt lat="43.130451401230225" lon="-0.20917067198406394"><ele>308.0</ele><time>2026-04-01T08:33:20Z</time></trkpt><trkpt lat="43.130381701570506" lon="-0.20911344013482483"><ele>308.0</ele><time>2026-04-01T08:33:21Z</time></trkpt><trkpt lat="43.13030301926895" lon="-0.20905268269290653"><ele>308.0</ele><time>2026-04-01T08:33:22Z</time></trkpt><trkpt lat="43.13022730318129" lon="-0.20899312243254456"><ele>308.0</ele><time>2026-04-01T08:33:23Z</time></trkpt><trkpt lat="43.130153262672465" lon="-0.2089318711752739"><ele>308.0</ele><time>2026-04-01T08:33:24Z</time></trkpt><trkpt lat="43.1300873483256" lon="-0.20888216346927826"><ele>308.0</ele><time>2026-04-01T08:33:25Z</time></trkpt><trkpt lat="43.1300217210182" lon="-0.20883201636818566"><ele>308.0</ele><time>2026-04-01T08:33:26Z</time></trkpt><trkpt lat="43.12996018527777" lon="-0.20878926426400962"><ele>308.0</ele><time>2026-04-01T08:33:27Z</time></trkpt><trkpt lat="43.129895899204236" lon="-0.20875650460953774"><ele>308.0</ele><time>2026-04-01T08:33:28Z</time></trkpt><trkpt lat="43.129828811275694" lon="-0.20875060967601786"><ele>308.0</ele><time>2026-04-01T08:33:29Z</time></trkpt><trkpt lat="43.12976929764479" lon="-0.20869787312187257"><ele>308.0</ele><time>2026-04-01T08:33:30Z</time></trkpt><trkpt lat="43.12971321296131" lon="-0.20865239075880612"><ele>308.0</ele><time>2026-04-01T08:33:31Z</time></trkpt><trkpt lat="43.12965677398452" lon="-0.20859523622548795"><ele>308.0</ele><time>2026-04-01T08:33:32Z</time></trkpt><trkpt lat="43.12958940053814" lon="-0.20851987726590956"><ele>308.1666666666667</ele><time>2026-04-01T08:33:34Z</time></trkpt><trkpt lat="43.12951877985709" lon="-0.20843280534744613"><ele>308.33333333333337</ele><time>2026-04-01T08:33:37Z</time></trkpt><trkpt lat="43.12942042110588" lon="-0.20832831256936218"><ele>308.5</ele><time>2026-04-01T08:33:39Z</time></trkpt><trkpt lat="43.12935540602511" lon="-0.20827585886070657"><ele>308.6666666666667</ele><time>2026-04-01T08:33:40Z</time></trkpt><trkpt lat="43.12928941592533" lon="-0.20822190075854163"><ele>308.8333333333333</ele><time>2026-04-01T08:33:41Z</time></trkpt><trkpt lat="43.12922668130426" lon="-0.2081763891596365"><ele>309.0</ele><time>2026-04-01T08:33:42Z</time></trkpt><trkpt lat="43.12915431108468" lon="-0.208110761359823"><ele>309.1666666666667</ele><time>2026-04-01T08:33:43Z</time></trkpt><trkpt lat="43.129070571689034" lon="-0.2080525097071128"><ele>309.3333333333333</ele><time>2026-04-01T08:33:44Z</time></trkpt><trkpt lat="43.128998859749586" lon="-0.2079906573588307"><ele>309.5</ele><time>2026-04-01T08:33:45Z</time></trkpt><trkpt lat="43.12892528535002" lon="-0.20793298383920905"><ele>309.66666666666663</ele><time>2026-04-01T08:33:46Z</time></trkpt><trkpt lat="43.128859033013704" lon="-0.2078768221307545"><ele>309.8333333333333</ele><time>2026-04-01T08:33:47Z</time></trkpt><trkpt lat="43.12877292716819" lon="-0.20781807659314272"><ele>310.0</ele><time>2026-04-01T08:33:48Z</time></trkpt><trkpt lat="43.1286940992683" lon="-0.20777349040169302"><ele>310.0</ele><time>2026-04-01T08:33:49Z</time></trkpt><trkpt lat="43.128616333851866" lon="-0.20773688986729982"><ele>310.0</ele><time>2026-04-01T08:33:50Z</time></trkpt><trkpt lat="43.12853314716529" lon="-0.20770471186498352"><ele>310.0</ele><time>2026-04-01T08:33:51Z</time></trkpt><trkpt lat="43.12845417317431" lon="-0.20768095029096825"><ele>310.0</ele><time>2026-04-01T08:33:52Z</time></trkpt><trkpt lat="43.12836682656439" lon="-0.20765989084804498"><ele>310.0</ele><time>2026-04-01T08:33:53Z</time></trkpt><trkpt lat="43.12827978982803" lon="-0.20764655188057438"><ele>310.0</ele><time>2026-04-01T08:33:54Z</time></trkpt><trkpt lat="43.12818187111021" lon="-0.20762508305507368"><ele>310.0</ele><time>2026-04-01T08:33:55Z</time></trkpt><trkpt lat="43.12808861547818" lon="-0.2076017900260064"><ele>310.0</ele><time>2026-04-01T08:33:56Z</time></trkpt><trkpt lat="43.1279994014826" lon="-0.2075854025365083"><ele>310.0</ele><time>2026-04-01T08:33:57Z</time></trkpt><trkpt lat="43.127917410929825" lon="-0.20757809659208107"><ele>310.0</ele><time>2026-04-01T08:33:58Z</time></trkpt><trkpt lat="43.12783453439231" lon="-0.20757184740999116"><ele>310.0</ele><time>2026-04-01T08:33:59Z</time></trkpt><trkpt lat="43.12774472875823" lon="-0.20756678822191554"><ele>310.0</ele><time>2026-04-01T08:34:00Z</time></trkpt><trkpt lat="43.12766415084777" lon="-0.2075711850254088"><ele>310.0</ele><time>2026-04-01T08:34:01Z</time></trkpt><trkpt lat="43.12758455040617" lon="-0.20756107409890906"><ele>310.0</ele><time>2026-04-01T08:34:02Z</time></trkpt><trkpt lat="43.12751367731462" lon="-0.20755532419350056"><ele>310.0</ele><time>2026-04-01T08:34:03Z</time></trkpt><trkpt lat="43.12743727550728" lon="-0.20755287301880726"><ele>310.0</ele><time>2026-04-01T08:34:04Z</time></trkpt><trkpt lat="43.127364393459736" lon="-0.20755588474787912"><ele>310.0</ele><time>2026-04-01T08:34:05Z</time></trkpt><trkpt lat="43.127284805136874" lon="-0.20756594059706368"><ele>310.0</ele><time>2026-04-01T08:34:06Z</time></trkpt><trkpt lat="43.12720977959332" lon="-0.2075723242573686"><ele>309.2</ele><time>2026-04-01T08:34:07Z</time></trkpt><trkpt lat="43.12712289448471" lon="-0.20757691075171347"><ele>308.4</ele><time>2026-04-01T08:34:08Z</time></trkpt><trkpt lat="43.12704110530206" lon="-0.20757466808033945"><ele>307.6</ele><time>2026-04-01T08:34:09Z</time></trkpt><trkpt lat="43.126949146935104" lon="-0.20757454468537995"><ele>306.8</ele><time>2026-04-01T08:34:10Z</time></trkpt><trkpt lat="43.126854923122565" lon="-0.20757103534458693"><ele>306.0</ele><time>2026-04-01T08:34:11Z</time></trkpt><trkpt lat="43.12675610156278" lon="-0.2075690146522177"><ele>306.0</ele><time>2026-04-01T08:34:12Z</time></trkpt><trkpt lat="43.12665371027446" lon="-0.20756689627637886"><ele>306.0</ele><time>2026-04-01T08:34:13Z</time></trkpt><trkpt lat="43.12655057246967" lon="-0.2075628256163451"><ele>306.0</ele><time>2026-04-01T08:34:14Z</time></trkpt><trkpt lat="43.12643830036806" lon="-0.20756006116576156"><ele>306.0</ele><time>2026-04-01T08:34:15Z</time></trkpt><trkpt lat="43.12632244770841" lon="-0.20755585704030693"><ele>306.0</ele><time>2026-04-01T08:34:16Z</time></trkpt><trkpt lat="43.12619359889508" lon="-0.2075452120311038"><ele>305.75</ele><time>2026-04-01T08:34:17Z</time></trkpt><trkpt lat="43.126061590019006" lon="-0.20755838676457342"><ele>305.5</ele><time>2026-04-01T08:34:18Z</time></trkpt><trkpt lat="43.12596172886128" lon="-0.20754887663896684"><ele>305.25</ele><time>2026-04-01T08:34:19Z</time></trkpt><trkpt lat="43.125820917892646" lon="-0.2075406347924925"><ele>305.0</ele><time>2026-04-01T08:34:20Z</time></trkpt><trkpt lat="43.125668993504036" lon="-0.20752562318764045"><ele>306.33333333333337</ele><time>2026-04-01T08:34:21Z</time></trkpt><trkpt lat="43.12549626208476" lon="-0.20753159397937473"><ele>307.6666666666667</ele><time>2026-04-01T08:34:22Z</time></trkpt><trkpt lat="43.1253181604509" lon="-0.20752257926209086"><ele>309.0</ele><time>2026-04-01T08:34:23Z</time></trkpt><trkpt lat="43.125144493401045" lon="-0.20751137718217935"><ele>309.0</ele><time>2026-04-01T08:34:24Z</time></trkpt><trkpt lat="43.1249751591392" lon="-0.20748123686932307"><ele>309.0</ele><time>2026-04-01T08:34:25Z</time></trkpt><trkpt lat="43.124803642025014" lon="-0.2074741332163441"><ele>309.0</ele><time>2026-04-01T08:34:26Z</time></trkpt><trkpt lat="43.124634010133576" lon="-0.20746124859336"><ele>311.6666666666667</ele><time>2026-04-01T08:34:27Z</time></trkpt><trkpt lat="43.124465817928225" lon="-0.20742865505251407"><ele>314.33333333333337</ele><time>2026-04-01T08:34:28Z</time></trkpt><trkpt lat="43.12430568305651" lon="-0.20738510096981724"><ele>317.0</ele><time>2026-04-01T08:34:29Z</time></trkpt><trkpt lat="43.124156130095095" lon="-0.2073292317533407"><ele>316.0</ele><time>2026-04-01T08:34:30Z</time></trkpt><trkpt lat="43.124026987096975" lon="-0.2072526223976736"><ele>315.0</ele><time>2026-04-01T08:34:31Z</time></trkpt><trkpt lat="43.123922872026185" lon="-0.20714848382987955"><ele>314.0</ele><time>2026-04-01T08:34:32Z</time></trkpt><trkpt lat="43.12383557291047" lon="-0.20702269040930038"><ele>313.0</ele><time>2026-04-01T08:34:33Z</time></trkpt><trkpt lat="43.12374586056328" lon="-0.2068930251160618"><ele>313.0</ele><time>2026-04-01T08:34:34Z</time></trkpt><trkpt lat="43.123653849714714" lon="-0.2067679939913363"><ele>313.0</ele><time>2026-04-01T08:34:35Z</time></trkpt><trkpt lat="43.12355776511667" lon="-0.20665200204497133"><ele>313.0</ele><time>2026-04-01T08:34:36Z</time></trkpt><trkpt lat="43.12345564663279" lon="-0.20653462414460105"><ele>313.0</ele><time>2026-04-01T08:34:37Z</time></trkpt><trkpt lat="43.123356259715734" lon="-0.20638402472465664"><ele>313.3333333333333</ele><time>2026-04-01T08:34:38Z</time></trkpt><trkpt lat="43.12325985930804" lon="-0.20619930910413795"><ele>313.6666666666667</ele><time>2026-04-01T08:34:39Z</time></trkpt><trkpt lat="43.12316785353355" lon="-0.20599067483001454"><ele>314.0</ele><time>2026-04-01T08:34:40Z</time></trkpt><trkpt lat="43.123082990386926" lon="-0.2057362933412681"><ele>313.0</ele><time>2026-04-01T08:34:41Z</time></trkpt><trkpt lat="43.122995267024656" lon="-0.2054783503892375"><ele>312.0</ele><time>2026-04-01T08:34:42Z</time></trkpt><trkpt lat="43.12290962345323" lon="-0.2051993297503497"><ele>311.0</ele><time>2026-04-01T08:34:43Z</time></trkpt><trkpt lat="43.1228245474849" lon="-0.2049021662685233"><ele>314.0</ele><time>2026-04-01T08:34:44Z</time></trkpt><trkpt lat="43.122740007891736" lon="-0.2046069079346247"><ele>317.0</ele><time>2026-04-01T08:34:45Z</time></trkpt><trkpt lat="43.122651705749625" lon="-0.2043210429622939"><ele>317.0</ele><time>2026-04-01T08:34:46Z</time></trkpt><trkpt lat="43.12256504970223" lon="-0.20403555006413174"><ele>317.0</ele><time>2026-04-01T08:34:47Z</time></trkpt><trkpt lat="43.12248216737431" lon="-0.20374936215108774"><ele>317.0</ele><time>2026-04-01T08:34:48Z</time></trkpt><trkpt lat="43.1223982629786" lon="-0.2034605624056246"><ele>317.0</ele><time>2026-04-01T08:34:49Z</time></trkpt><trkpt lat="43.12231097728556" lon="-0.20316972238912168"><ele>316.5</ele><time>2026-04-01T08:34:50Z</time></trkpt><trkpt lat="43.12221840142444" lon="-0.2028817840119229"><ele>316.0</ele><time>2026-04-01T08:34:51Z</time></trkpt><trkpt lat="43.1221244334309" lon="-0.20259199148341764"><ele>317.0</ele><time>2026-04-01T08:34:52Z</time></trkpt><trkpt lat="43.12203272726704" lon="-0.2023007942280664"><ele>318.0</ele><time>2026-04-01T08:34:53Z</time></trkpt><trkpt lat="43.12194266827294" lon="-0.20200828845712382"><ele>318.0</ele><time>2026-04-01T08:34:54Z</time></trkpt><trkpt lat="43.121853257287114" lon="-0.2017163532194802"><ele>318.0</ele><time>2026-04-01T08:34:55Z</time></trkpt><trkpt lat="43.12176629818848" lon="-0.20142586951666996"><ele>318.0</ele><time>2026-04-01T08:34:56Z</time></trkpt><trkpt lat="43.121680982696375" lon="-0.20113730766178622"><ele>318.0</ele><time>2026-04-01T08:34:57Z</time></trkpt><trkpt lat="43.121594623069534" lon="-0.20084986884522857"><ele>319.0</ele><time>2026-04-01T08:34:58Z</time></trkpt><trkpt lat="43.121508925727326" lon="-0.2005661419767307"><ele>320.0</ele><time>2026-04-01T08:34:59Z</time></trkpt><trkpt lat="43.12142112379055" lon="-0.20027693679754008"><ele>320.0</ele><time>2026-04-01T08:35:00Z</time></trkpt><trkpt lat="43.121334235639665" lon="-0.19998939652895997"><ele>320.0</ele><time>2026-04-01T08:35:01Z</time></trkpt><trkpt lat="43.12124701096607" lon="-0.19970485796112078"><ele>319.5</ele><time>2026-04-01T08:35:02Z</time></trkpt><trkpt lat="43.12115672356059" lon="-0.19941736345507796"><ele>319.0</ele><time>2026-04-01T08:35:03Z</time></trkpt><trkpt lat="43.12106740054894" lon="-0.19913066831685927"><ele>319.0</ele><time>2026-04-01T08:35:04Z</time></trkpt><trkpt lat="43.1209794429498" lon="-0.19884452613393191"><ele>319.0</ele><time>2026-04-01T08:35:05Z</time></trkpt><trkpt lat="43.12089221591283" lon="-0.19856068027298499"><ele>319.0</ele><time>2026-04-01T08:35:06Z</time></trkpt><trkpt lat="43.120806319809" lon="-0.19827717761257846"><ele>319.0</ele><time>2026-04-01T08:35:07Z</time></trkpt><trkpt lat="43.120725916888" lon="-0.19800838943310034"><ele>319.0</ele><time>2026-04-01T08:35:08Z</time></trkpt><trkpt lat="43.12064848524749" lon="-0.19775169710048024"><ele>317.0</ele><time>2026-04-01T08:35:09Z</time></trkpt><trkpt lat="43.120575650782925" lon="-0.19750948324770326"><ele>315.0</ele><time>2026-04-01T08:35:10Z</time></trkpt><trkpt lat="43.12050316006738" lon="-0.197270516966434"><ele>313.0</ele><time>2026-04-01T08:35:11Z</time></trkpt><trkpt lat="43.12042989242293" lon="-0.19702369086889782"><ele>313.0</ele><time>2026-04-01T08:35:12Z</time></trkpt><trkpt lat="43.12035634016892" lon="-0.196778951793031"><ele>313.0</ele><time>2026-04-01T08:35:13Z</time></trkpt><trkpt lat="43.12027461137761" lon="-0.19653155134231512"><ele>313.0</ele><time>2026-04-01T08:35:14Z</time></trkpt><trkpt lat="43.12018522007508" lon="-0.19628489238857177"><ele>314.0</ele><time>2026-04-01T08:35:15Z</time></trkpt><trkpt lat="43.12006882123684" lon="-0.19606042604944682"><ele>315.0</ele><time>2026-04-01T08:35:16Z</time></trkpt><trkpt lat="43.119934763754365" lon="-0.19584059655171662"><ele>316.0</ele><time>2026-04-01T08:35:17Z</time></trkpt><trkpt lat="43.11979217920218" lon="-0.195623633906589"><ele>316.0</ele><time>2026-04-01T08:35:18Z</time></trkpt><trkpt lat="43.119640912159554" lon="-0.19541154934325694"><ele>316.0</ele><time>2026-04-01T08:35:19Z</time></trkpt><trkpt lat="43.11947460520781" lon="-0.19521253722042597"><ele>316.0</ele><time>2026-04-01T08:35:20Z</time></trkpt><trkpt lat="43.11929182148522" lon="-0.1950408540211536"><ele>316.0</ele><time>2026-04-01T08:35:21Z</time></trkpt><trkpt lat="43.11909039831932" lon="-0.19489749071544638"><ele>316.0</ele><time>2026-04-01T08:35:22Z</time></trkpt><trkpt lat="43.11887999142974" lon="-0.1947726153319339"><ele>317.0</ele><time>2026-04-01T08:35:23Z</time></trkpt><trkpt lat="43.118664585467506" lon="-0.1946620256205773"><ele>318.0</ele><time>2026-04-01T08:35:24Z</time></trkpt><trkpt lat="43.11844024888991" lon="-0.1945602239201537"><ele>317.0</ele><time>2026-04-01T08:35:25Z</time></trkpt><trkpt lat="43.11821658334541" lon="-0.1944711356702619"><ele>316.0</ele><time>2026-04-01T08:35:26Z</time></trkpt><trkpt lat="43.11798591847184" lon="-0.19438809422612735"><ele>316.0</ele><time>2026-04-01T08:35:27Z</time></trkpt><trkpt lat="43.11775569799866" lon="-0.19430034049488334"><ele>316.0</ele><time>2026-04-01T08:35:28Z</time></trkpt><trkpt lat="43.117528375515704" lon="-0.19420579153434545"><ele>315.0</ele><time>2026-04-01T08:35:29Z</time></trkpt><trkpt lat="43.117297047384604" lon="-0.19410976957336554"><ele>314.0</ele><time>2026-04-01T08:35:30Z</time></trkpt><trkpt lat="43.117066546607376" lon="-0.19401699225027513"><ele>318.0</ele><time>2026-04-01T08:35:31Z</time></trkpt><trkpt lat="43.11683539860995" lon="-0.1939255827550914"><ele>322.0</ele><time>2026-04-01T08:35:32Z</time></trkpt><trkpt lat="43.11660218137048" lon="-0.19383263009141927"><ele>322.5</ele><time>2026-04-01T08:35:33Z</time></trkpt><trkpt lat="43.11636998769022" lon="-0.1937364245251451"><ele>323.0</ele><time>2026-04-01T08:35:34Z</time></trkpt><trkpt lat="43.1161371671285" lon="-0.1936363462113431"><ele>323.0</ele><time>2026-04-01T08:35:35Z</time></trkpt><trkpt lat="43.11590482085659" lon="-0.19353771055236352"><ele>323.0</ele><time>2026-04-01T08:35:36Z</time></trkpt><trkpt lat="43.11568585544535" lon="-0.19344620288154354"><ele>320.33333333333337</ele><time>2026-04-01T08:35:37Z</time></trkpt><trkpt lat="43.11548003287042" lon="-0.19335840956986539"><ele>317.6666666666667</ele><time>2026-04-01T08:35:38Z</time></trkpt><trkpt lat="43.115280876069605" lon="-0.19326042353617467"><ele>315.0</ele><time>2026-04-01T08:35:39Z</time></trkpt><trkpt lat="43.11507719945632" lon="-0.19312831079821136"><ele>317.5</ele><time>2026-04-01T08:35:40Z</time></trkpt><trkpt lat="43.11487554673393" lon="-0.1929709533965227"><ele>320.0</ele><time>2026-04-01T08:35:41Z</time></trkpt><trkpt lat="43.11467329911978" lon="-0.19279568057535978"><ele>320.0</ele><time>2026-04-01T08:35:42Z</time></trkpt><trkpt lat="43.11446886666027" lon="-0.1926139767583049"><ele>320.0</ele><time>2026-04-01T08:35:43Z</time></trkpt><trkpt lat="43.11426640811102" lon="-0.19242261479896425"><ele>321.0</ele><time>2026-04-01T08:35:44Z</time></trkpt><trkpt lat="43.114063952387795" lon="-0.19222854479090581"><ele>322.0</ele><time>2026-04-01T08:35:45Z</time></trkpt><trkpt lat="43.113857253376665" lon="-0.19203971547413676"><ele>322.0</ele><time>2026-04-01T08:35:46Z</time></trkpt><trkpt lat="43.11363982891529" lon="-0.1918524483167982"><ele>322.0</ele><time>2026-04-01T08:35:47Z</time></trkpt><trkpt lat="43.11340807952291" lon="-0.19166120187372412"><ele>324.0</ele><time>2026-04-01T08:35:48Z</time></trkpt><trkpt lat="43.11316917425264" lon="-0.19146214462106917"><ele>326.0</ele><time>2026-04-01T08:35:49Z</time></trkpt><trkpt lat="43.11292242225263" lon="-0.19126553800390664"><ele>326.0</ele><time>2026-04-01T08:35:50Z</time></trkpt><trkpt lat="43.11268063459013" lon="-0.19108576008919123"><ele>326.0</ele><time>2026-04-01T08:35:51Z</time></trkpt><trkpt lat="43.11244123099082" lon="-0.19092202645147516"><ele>322.0</ele><time>2026-04-01T08:35:52Z</time></trkpt><trkpt lat="43.11219096855007" lon="-0.19081340372814412"><ele>318.0</ele><time>2026-04-01T08:35:53Z</time></trkpt><trkpt lat="43.11194549912967" lon="-0.1906937341186365"><ele>321.5</ele><time>2026-04-01T08:35:54Z</time></trkpt><trkpt lat="43.11170778920028" lon="-0.19056725299849187"><ele>325.0</ele><time>2026-04-01T08:35:55Z</time></trkpt><trkpt lat="43.111469322051484" lon="-0.19047147655823993"><ele>325.0</ele><time>2026-04-01T08:35:56Z</time></trkpt><trkpt lat="43.11123388974993" lon="-0.19037315057152454"><ele>325.0</ele><time>2026-04-01T08:35:57Z</time></trkpt><trkpt lat="43.111006197019385" lon="-0.19027082027554706"><ele>325.0</ele><time>2026-04-01T08:35:58Z</time></trkpt><trkpt lat="43.110781424379155" lon="-0.19016487002257784"><ele>325.0</ele><time>2026-04-01T08:35:59Z</time></trkpt><trkpt lat="43.1105533949508" lon="-0.190052278579443"><ele>322.0</ele><time>2026-04-01T08:36:00Z</time></trkpt><trkpt lat="43.11032942993962" lon="-0.1899304937567046"><ele>319.0</ele><time>2026-04-01T08:36:01Z</time></trkpt><trkpt lat="43.110111127975266" lon="-0.1897813078832986"><ele>319.5</ele><time>2026-04-01T08:36:02Z</time></trkpt><trkpt lat="43.10990235576526" lon="-0.18960072000304448"><ele>320.0</ele><time>2026-04-01T08:36:03Z</time></trkpt><trkpt lat="43.10970162894054" lon="-0.18939043721760285"><ele>320.0</ele><time>2026-04-01T08:36:04Z</time></trkpt><trkpt lat="43.1095037372258" lon="-0.18916259631205215"><ele>320.0</ele><time>2026-04-01T08:36:05Z</time></trkpt><trkpt lat="43.10929438990664" lon="-0.18892157551487695"><ele>320.0</ele><time>2026-04-01T08:36:06Z</time></trkpt><trkpt lat="43.10907228899355" lon="-0.1886722625536772"><ele>320.0</ele><time>2026-04-01T08:36:07Z</time></trkpt><trkpt lat="43.10882669236107" lon="-0.18843673037910869"><ele>326.5</ele><time>2026-04-01T08:36:08Z</time></trkpt><trkpt lat="43.10859913723279" lon="-0.18817495218055955"><ele>333.0</ele><time>2026-04-01T08:36:09Z</time></trkpt><trkpt lat="43.108377493727396" lon="-0.18794108322444444"><ele>328.5</ele><time>2026-04-01T08:36:10Z</time></trkpt><trkpt lat="43.10817504134408" lon="-0.18772366929940312"><ele>324.0</ele><time>2026-04-01T08:36:11Z</time></trkpt><trkpt lat="43.1079853033323" lon="-0.1875173995692063"><ele>327.0</ele><time>2026-04-01T08:36:12Z</time></trkpt><trkpt lat="43.10781036246617" lon="-0.18732610675952518"><ele>330.0</ele><time>2026-04-01T08:36:13Z</time></trkpt><trkpt lat="43.10765412869346" lon="-0.18715017900176448"><ele>333.0</ele><time>2026-04-01T08:36:14Z</time></trkpt><trkpt lat="43.107527781196715" lon="-0.1869986017290297"><ele>333.0</ele><time>2026-04-01T08:36:15Z</time></trkpt><trkpt lat="43.10741583948794" lon="-0.18685943318565476"><ele>333.0</ele><time>2026-04-01T08:36:16Z</time></trkpt><trkpt lat="43.10731191274592" lon="-0.186725800325306"><ele>333.0</ele><time>2026-04-01T08:36:17Z</time></trkpt><trkpt lat="43.10721541498967" lon="-0.18659930597867108"><ele>333.0</ele><time>2026-04-01T08:36:18Z</time></trkpt><trkpt lat="43.10713174511632" lon="-0.1864776766836189"><ele>332.0</ele><time>2026-04-01T08:36:19Z</time></trkpt><trkpt lat="43.107064799142265" lon="-0.18635003976408201"><ele>331.0</ele><time>2026-04-01T08:36:20Z</time></trkpt><trkpt lat="43.107022405303724" lon="-0.18621289536511101"><ele>330.0</ele><time>2026-04-01T08:36:21Z</time></trkpt><trkpt lat="43.10701471149258" lon="-0.1860609042427263"><ele>329.0</ele><time>2026-04-01T08:36:22Z</time></trkpt><trkpt lat="43.10702155899385" lon="-0.18587862795989302"><ele>329.5</ele><time>2026-04-01T08:36:23Z</time></trkpt><trkpt lat="43.10702225748309" lon="-0.18566723395154086"><ele>330.0</ele><time>2026-04-01T08:36:24Z</time></trkpt><trkpt lat="43.10701515181674" lon="-0.1854586845921482"><ele>330.5</ele><time>2026-04-01T08:36:25Z</time></trkpt><trkpt lat="43.106993108728204" lon="-0.18527585156390577"><ele>331.0</ele><time>2026-04-01T08:36:26Z</time></trkpt><trkpt lat="43.10695324304016" lon="-0.18510771628934486"><ele>331.0</ele><time>2026-04-01T08:36:27Z</time></trkpt><trkpt lat="43.106912776565125" lon="-0.18493640969399372"><ele>331.0</ele><time>2026-04-01T08:36:28Z</time></trkpt><trkpt lat="43.10687365536939" lon="-0.18476138818786103"><ele>331.0</ele><time>2026-04-01T08:36:29Z</time></trkpt><trkpt lat="43.10683772419966" lon="-0.18458378299521422"><ele>331.0</ele><time>2026-04-01T08:36:30Z</time></trkpt><trkpt lat="43.106800544282024" lon="-0.18439943189311916"><ele>332.0</ele><time>2026-04-01T08:36:31Z</time></trkpt><trkpt lat="43.1067623227742" lon="-0.18419098079386514"><ele>333.0</ele><time>2026-04-01T08:36:32Z</time></trkpt><trkpt lat="43.10672778458299" lon="-0.18395915050540668"><ele>334.0</ele><time>2026-04-01T08:36:33Z</time></trkpt><trkpt lat="43.106688645064715" lon="-0.1836981455375306"><ele>332.0</ele><time>2026-04-01T08:36:34Z</time></trkpt><trkpt lat="43.10662990218439" lon="-0.18342064510308873"><ele>330.0</ele><time>2026-04-01T08:36:35Z</time></trkpt><trkpt lat="43.10655719889235" lon="-0.18313306741953567"><ele>328.0</ele><time>2026-04-01T08:36:36Z</time></trkpt><trkpt lat="43.10648763509083" lon="-0.18282592757358404"><ele>328.0</ele><time>2026-04-01T08:36:37Z</time></trkpt><trkpt lat="43.106424760036305" lon="-0.1825028059162483"><ele>328.0</ele><time>2026-04-01T08:36:38Z</time></trkpt><trkpt lat="43.10636672421894" lon="-0.18216037592080603"><ele>329.0</ele><time>2026-04-01T08:36:39Z</time></trkpt><trkpt lat="43.106308806822405" lon="-0.18183867296072004"><ele>330.0</ele><time>2026-04-01T08:36:40Z</time></trkpt><trkpt lat="43.106251571025446" lon="-0.18152586442844804"><ele>331.5</ele><time>2026-04-01T08:36:41Z</time></trkpt><trkpt lat="43.106191006332445" lon="-0.1812053248178791"><ele>333.0</ele><time>2026-04-01T08:36:42Z</time></trkpt><trkpt lat="43.10612255119405" lon="-0.18087621546542457"><ele>339.0</ele><time>2026-04-01T08:36:43Z</time></trkpt><trkpt lat="43.10604387757106" lon="-0.18054685624629788"><ele>345.0</ele><time>2026-04-01T08:36:44Z</time></trkpt><trkpt lat="43.1059528711642" lon="-0.18023612877982298"><ele>345.0</ele><time>2026-04-01T08:36:45Z</time></trkpt><trkpt lat="43.105848852555305" lon="-0.17992771249147774"><ele>345.0</ele><time>2026-04-01T08:36:46Z</time></trkpt><trkpt lat="43.1057395008243" lon="-0.17962073133210504"><ele>340.5</ele><time>2026-04-01T08:36:47Z</time></trkpt><trkpt lat="43.10563189636203" lon="-0.17931529521719197"><ele>336.0</ele><time>2026-04-01T08:36:48Z</time></trkpt><trkpt lat="43.105523231606576" lon="-0.17900828179366954"><ele>336.0</ele><time>2026-04-01T08:36:49Z</time></trkpt><trkpt lat="43.10541607021584" lon="-0.17869819579864718"><ele>336.0</ele><time>2026-04-01T08:36:50Z</time></trkpt><trkpt lat="43.10530820584588" lon="-0.17838393266219152"><ele>344.5</ele><time>2026-04-01T08:36:51Z</time></trkpt><trkpt lat="43.10519645230668" lon="-0.17806571167547133"><ele>353.0</ele><time>2026-04-01T08:36:52Z</time></trkpt><trkpt lat="43.10508498608289" lon="-0.17775507685617498"><ele>353.0</ele><time>2026-04-01T08:36:53Z</time></trkpt><trkpt lat="43.1049777095523" lon="-0.17747160238245238"><ele>353.0</ele><time>2026-04-01T08:36:54Z</time></trkpt><trkpt lat="43.104870937505076" lon="-0.17721292784202694"><ele>350.33333333333337</ele><time>2026-04-01T08:36:55Z</time></trkpt><trkpt lat="43.10474918931482" lon="-0.17696468138497878"><ele>347.6666666666667</ele><time>2026-04-01T08:36:56Z</time></trkpt><trkpt lat="43.10461185622763" lon="-0.1767247017489119"><ele>345.0</ele><time>2026-04-01T08:36:57Z</time></trkpt><trkpt lat="43.104478464536484" lon="-0.17647956763302194"><ele>345.0</ele><time>2026-04-01T08:36:58Z</time></trkpt><trkpt lat="43.104377453568816" lon="-0.1762080202296913"><ele>345.0</ele><time>2026-04-01T08:36:59Z</time></trkpt><trkpt lat="43.10431679041138" lon="-0.17590710794465628"><ele>348.0</ele><time>2026-04-01T08:37:00Z</time></trkpt><trkpt lat="43.10427010452863" lon="-0.17560182859688148"><ele>351.0</ele><time>2026-04-01T08:37:01Z</time></trkpt><trkpt lat="43.104197407140695" lon="-0.17529950032251096"><ele>344.0</ele><time>2026-04-01T08:37:02Z</time></trkpt><trkpt lat="43.10405968914874" lon="-0.17503871093796775"><ele>337.0</ele><time>2026-04-01T08:37:03Z</time></trkpt><trkpt lat="43.103922563093" lon="-0.174779116157445"><ele>337.0</ele><time>2026-04-01T08:37:04Z</time></trkpt><trkpt lat="43.103794309545144" lon="-0.17450619026842418"><ele>337.0</ele><time>2026-04-01T08:37:05Z</time></trkpt><trkpt lat="43.1036882920569" lon="-0.17421411979579202"><ele>340.0</ele><time>2026-04-01T08:37:06Z</time></trkpt><trkpt lat="43.10358403184261" lon="-0.17393135060519446"><ele>343.0</ele><time>2026-04-01T08:37:07Z</time></trkpt><trkpt lat="43.10347025407808" lon="-0.17363490188698616"><ele>343.0</ele><time>2026-04-01T08:37:08Z</time></trkpt><trkpt lat="43.103363149420545" lon="-0.1733357592740738"><ele>343.0</ele><time>2026-04-01T08:37:09Z</time></trkpt><trkpt lat="43.103260431309145" lon="-0.17305208761552546"><ele>342.0</ele><time>2026-04-01T08:37:10Z</time></trkpt><trkpt lat="43.10315306581834" lon="-0.17275052926485027"><ele>341.0</ele><time>2026-04-01T08:37:11Z</time></trkpt><trkpt lat="43.103041417291315" lon="-0.17246021628464342"><ele>341.0</ele><time>2026-04-01T08:37:12Z</time></trkpt><trkpt lat="43.10293684639949" lon="-0.17218108906780866"><ele>341.0</ele><time>2026-04-01T08:37:13Z</time></trkpt><trkpt lat="43.10285137913429" lon="-0.17191531484801603"><ele>341.0</ele><time>2026-04-01T08:37:14Z</time></trkpt><trkpt lat="43.10277328929145" lon="-0.17162871973368304"><ele>341.0</ele><time>2026-04-01T08:37:15Z</time></trkpt><trkpt lat="43.102702628749284" lon="-0.17134457339158815"><ele>341.0</ele><time>2026-04-01T08:37:16Z</time></trkpt><trkpt lat="43.10263694836987" lon="-0.1710597604957981"><ele>341.0</ele><time>2026-04-01T08:37:17Z</time></trkpt><trkpt lat="43.10257549200087" lon="-0.17077304544336808"><ele>341.33333333333337</ele><time>2026-04-01T08:37:18Z</time></trkpt><trkpt lat="43.10251130231277" lon="-0.17049254424467042"><ele>341.6666666666667</ele><time>2026-04-01T08:37:19Z</time></trkpt><trkpt lat="43.10244248344355" lon="-0.17023442993401947"><ele>342.0</ele><time>2026-04-01T08:37:20Z</time></trkpt><trkpt lat="43.10237859739688" lon="-0.16999761818739162"><ele>340.0</ele><time>2026-04-01T08:37:21Z</time></trkpt><trkpt lat="43.10232249376755" lon="-0.16977619091295346"><ele>338.0</ele><time>2026-04-01T08:37:22Z</time></trkpt><trkpt lat="43.10227329753061" lon="-0.1695833906426728"><ele>336.0</ele><time>2026-04-01T08:37:23Z</time></trkpt><trkpt lat="43.10222392324315" lon="-0.16935590701362493"><ele>336.0</ele><time>2026-04-01T08:37:24Z</time></trkpt><trkpt lat="43.10219292118889" lon="-0.16907121869831668"><ele>336.0</ele><time>2026-04-01T08:37:25Z</time></trkpt><trkpt lat="43.102194629542964" lon="-0.16878021709468524"><ele>336.0</ele><time>2026-04-01T08:37:26Z</time></trkpt><trkpt lat="43.10222102759865" lon="-0.16849084068529563"><ele>336.0</ele><time>2026-04-01T08:37:27Z</time></trkpt><trkpt lat="43.10226245476654" lon="-0.16821083790214286"><ele>336.0</ele><time>2026-04-01T08:37:28Z</time></trkpt><trkpt lat="43.10229747654027" lon="-0.16795817916332945"><ele>336.0</ele><time>2026-04-01T08:37:29Z</time></trkpt><trkpt lat="43.10232618135274" lon="-0.16771441714142696"><ele>336.0</ele><time>2026-04-01T08:37:30Z</time></trkpt><trkpt lat="43.102352964709524" lon="-0.16747630799336558"><ele>336.0</ele><time>2026-04-01T08:37:31Z</time></trkpt><trkpt lat="43.1023856423771" lon="-0.16725956107660417"><ele>336.0</ele><time>2026-04-01T08:37:32Z</time></trkpt><trkpt lat="43.10242143515678" lon="-0.16705412822013058"><ele>337.25</ele><time>2026-04-01T08:37:33Z</time></trkpt><trkpt lat="43.102458531303625" lon="-0.16687198384164506"><ele>338.5</ele><time>2026-04-01T08:37:34Z</time></trkpt><trkpt lat="43.10249422486226" lon="-0.16669984630398763"><ele>339.75</ele><time>2026-04-01T08:37:35Z</time></trkpt><trkpt lat="43.102524154210485" lon="-0.16654126668211525"><ele>341.0</ele><time>2026-04-01T08:37:36Z</time></trkpt><trkpt lat="43.10255132803455" lon="-0.16638805394017034"><ele>341.25</ele><time>2026-04-01T08:37:37Z</time></trkpt><trkpt lat="43.102584240646934" lon="-0.1662244724145363"><ele>341.5</ele><time>2026-04-01T08:37:38Z</time></trkpt><trkpt lat="43.10261796242743" lon="-0.1660464515501928"><ele>341.75</ele><time>2026-04-01T08:37:39Z</time></trkpt><trkpt lat="43.102651473091676" lon="-0.16587656947999743"><ele>342.0</ele><time>2026-04-01T08:37:40Z</time></trkpt><trkpt lat="43.102688526122584" lon="-0.16571161011546637"><ele>341.8</ele><time>2026-04-01T08:37:41Z</time></trkpt><trkpt lat="43.10272668804005" lon="-0.1655512026894306"><ele>341.6</ele><time>2026-04-01T08:37:42Z</time></trkpt><trkpt lat="43.10276284353889" lon="-0.1653943827215417"><ele>341.40000000000003</ele><time>2026-04-01T08:37:43Z</time></trkpt><trkpt lat="43.10279251884077" lon="-0.16525749327258463"><ele>341.20000000000005</ele><time>2026-04-01T08:37:44Z</time></trkpt><trkpt lat="43.10281068814143" lon="-0.1651536399521737"><ele>341.0</ele><time>2026-04-01T08:37:45Z</time></trkpt><trkpt lat="43.10283100730102" lon="-0.1650271831648064"><ele>341.0</ele><time>2026-04-01T08:37:47Z</time></trkpt><trkpt lat="43.10284651189095" lon="-0.16490734478811708"><ele>341.0</ele><time>2026-04-01T08:37:49Z</time></trkpt><trkpt lat="43.10285950211621" lon="-0.1647920313490188"><ele>341.0</ele><time>2026-04-01T08:37:50Z</time></trkpt><trkpt lat="43.10287010430243" lon="-0.1646704192185899"><ele>341.0</ele><time>2026-04-01T08:37:51Z</time></trkpt><trkpt lat="43.102881992702265" lon="-0.164529336709374"><ele>341.0</ele><time>2026-04-01T08:37:52Z</time></trkpt><trkpt lat="43.102890589842666" lon="-0.1643613112581806"><ele>341.0</ele><time>2026-04-01T08:37:53Z</time></trkpt><trkpt lat="43.10290346280849" lon="-0.164171207726442"><ele>341.0</ele><time>2026-04-01T08:37:54Z</time></trkpt><trkpt lat="43.102918026125586" lon="-0.16398533196491644"><ele>341.0</ele><time>2026-04-01T08:37:55Z</time></trkpt><trkpt lat="43.10293661769806" lon="-0.16379370885199176"><ele>341.0</ele><time>2026-04-01T08:37:56Z</time></trkpt><trkpt lat="43.10296884136378" lon="-0.16358917527983516"><ele>340.75</ele><time>2026-04-01T08:37:57Z</time></trkpt><trkpt lat="43.10300682943773" lon="-0.1633805922320005"><ele>340.5</ele><time>2026-04-01T08:37:58Z</time></trkpt><trkpt lat="43.10305236238044" lon="-0.16318068740970013"><ele>340.25</ele><time>2026-04-01T08:37:59Z</time></trkpt><trkpt lat="43.103104496572094" lon="-0.16300610022795473"><ele>340.0</ele><time>2026-04-01T08:38:00Z</time></trkpt><trkpt lat="43.10315974679343" lon="-0.16285007582035924"><ele>339.75</ele><time>2026-04-01T08:38:01Z</time></trkpt><trkpt lat="43.10319546245837" lon="-0.16269568922026162"><ele>339.5</ele><time>2026-04-01T08:38:02Z</time></trkpt><trkpt lat="43.103239354343245" lon="-0.16255694715969066"><ele>339.25</ele><time>2026-04-01T08:38:03Z</time></trkpt><trkpt lat="43.103289021937044" lon="-0.16239994806162994"><ele>339.0</ele><time>2026-04-01T08:38:04Z</time></trkpt><trkpt lat="43.10332464748126" lon="-0.16226417155629216"><ele>341.79999999999995</ele><time>2026-04-01T08:38:05Z</time></trkpt><trkpt lat="43.10336158848271" lon="-0.16212198217682794"><ele>344.59999999999997</ele><time>2026-04-01T08:38:06Z</time></trkpt><trkpt lat="43.103407167144475" lon="-0.1620031631616586"><ele>347.4</ele><time>2026-04-01T08:38:07Z</time></trkpt><trkpt lat="43.10343672794974" lon="-0.1618833004693794"><ele>350.2</ele><time>2026-04-01T08:38:08Z</time></trkpt><trkpt lat="43.10346339252244" lon="-0.16176538898404816"><ele>353.0</ele><time>2026-04-01T08:38:09Z</time></trkpt><trkpt lat="43.103497240760916" lon="-0.1616566080836842"><ele>353.0</ele><time>2026-04-01T08:38:10Z</time></trkpt><trkpt lat="43.10354495780327" lon="-0.16153975606389032"><ele>353.0</ele><time>2026-04-01T08:38:11Z</time></trkpt><trkpt lat="43.10359665571041" lon="-0.16141339482593153"><ele>353.0</ele><time>2026-04-01T08:38:12Z</time></trkpt><trkpt lat="43.103629517757" lon="-0.16126592935045742"><ele>353.0</ele><time>2026-04-01T08:38:13Z</time></trkpt><trkpt lat="43.10365772172159" lon="-0.16111955779804288"><ele>353.0</ele><time>2026-04-01T08:38:14Z</time></trkpt><trkpt lat="43.10368130351227" lon="-0.16098854745595592"><ele>353.4</ele><time>2026-04-01T08:38:15Z</time></trkpt><trkpt lat="43.10369998397437" lon="-0.16085404522558905"><ele>353.79999999999995</ele><time>2026-04-01T08:38:16Z</time></trkpt><trkpt lat="43.10370938346526" lon="-0.1607191475210945"><ele>354.2</ele><time>2026-04-01T08:38:17Z</time></trkpt><trkpt lat="43.103703128215386" lon="-0.16058712339630407"><ele>354.6</ele><time>2026-04-01T08:38:18Z</time></trkpt><trkpt lat="43.103672275962765" lon="-0.1604690808212304"><ele>355.0</ele><time>2026-04-01T08:38:19Z</time></trkpt><trkpt lat="43.10364081681031" lon="-0.16034820294595822"><ele>355.2857142857143</ele><time>2026-04-01T08:38:20Z</time></trkpt><trkpt lat="43.1036123855514" lon="-0.16023901915231611"><ele>355.57142857142856</ele><time>2026-04-01T08:38:21Z</time></trkpt><trkpt lat="43.10358896698136" lon="-0.16013827507066222"><ele>355.8571428571429</ele><time>2026-04-01T08:38:22Z</time></trkpt><trkpt lat="43.10357199209625" lon="-0.16004720362448552"><ele>356.1428571428571</ele><time>2026-04-01T08:38:23Z</time></trkpt><trkpt lat="43.10355509858903" lon="-0.15995524964784247"><ele>356.42857142857144</ele><time>2026-04-01T08:38:24Z</time></trkpt><trkpt lat="43.103539470602215" lon="-0.15986077135840604"><ele>356.7142857142857</ele><time>2026-04-01T08:38:25Z</time></trkpt><trkpt lat="43.103523308938776" lon="-0.15976306668201318"><ele>357.0</ele><time>2026-04-01T08:38:26Z</time></trkpt><trkpt lat="43.10350548200141" lon="-0.15965462048135143"><ele>357.3333333333333</ele><time>2026-04-01T08:38:27Z</time></trkpt><trkpt lat="43.10348577315667" lon="-0.1595536337875749"><ele>357.6666666666667</ele><time>2026-04-01T08:38:28Z</time></trkpt><trkpt lat="43.10346933772407" lon="-0.1594690049218945"><ele>358.0</ele><time>2026-04-01T08:38:29Z</time></trkpt><trkpt lat="43.10345748545959" lon="-0.15934693417108206"><ele>358.33333333333337</ele><time>2026-04-01T08:38:31Z</time></trkpt><trkpt lat="43.10342469128013" lon="-0.15926529954934418"><ele>358.6666666666667</ele><time>2026-04-01T08:38:34Z</time></trkpt><trkpt lat="43.10335790157853" lon="-0.15919222926909052"><ele>359.0</ele><time>2026-04-01T08:38:37Z</time></trkpt><trkpt lat="43.103285988591246" lon="-0.1591846634548642"><ele>358.6666666666667</ele><time>2026-04-01T08:38:38Z</time></trkpt><trkpt lat="43.103205108729185" lon="-0.15917770326932346"><ele>358.33333333333337</ele><time>2026-04-01T08:38:39Z</time></trkpt><trkpt lat="43.103111441014605" lon="-0.15917187689696322"><ele>358.0</ele><time>2026-04-01T08:38:40Z</time></trkpt><trkpt lat="43.103036582457406" lon="-0.15916309196184938"><ele>357.6666666666667</ele><time>2026-04-01T08:38:41Z</time></trkpt><trkpt lat="43.10294601096332" lon="-0.15915219046774706"><ele>357.3333333333333</ele><time>2026-04-01T08:38:42Z</time></trkpt><trkpt lat="43.10285999651999" lon="-0.15910940246051908"><ele>357.0</ele><time>2026-04-01T08:38:43Z</time></trkpt><trkpt lat="43.1027716461917" lon="-0.15905948288286778"><ele>358.0</ele><time>2026-04-01T08:38:44Z</time></trkpt><trkpt lat="43.102686742394226" lon="-0.15898731330723959"><ele>359.0</ele><time>2026-04-01T08:38:45Z</time></trkpt><trkpt lat="43.10260644579714" lon="-0.1589141639208336"><ele>360.0</ele><time>2026-04-01T08:38:46Z</time></trkpt><trkpt lat="43.10252041074931" lon="-0.1588363808815728"><ele>361.0</ele><time>2026-04-01T08:38:47Z</time></trkpt><trkpt lat="43.10243835864782" lon="-0.15876374904622867"><ele>362.0</ele><time>2026-04-01T08:38:48Z</time></trkpt><trkpt lat="43.102358639209285" lon="-0.15869338127704513"><ele>359.8</ele><time>2026-04-01T08:38:49Z</time></trkpt><trkpt lat="43.10228496588925" lon="-0.15862194029909113"><ele>357.6</ele><time>2026-04-01T08:38:50Z</time></trkpt><trkpt lat="43.1022167619045" lon="-0.15854568171042455"><ele>355.40000000000003</ele><time>2026-04-01T08:38:51Z</time></trkpt><trkpt lat="43.102150783404205" lon="-0.15846096185045339"><ele>353.20000000000005</ele><time>2026-04-01T08:38:52Z</time></trkpt><trkpt lat="43.102083247896864" lon="-0.15837043487909788"><ele>351.0</ele><time>2026-04-01T08:38:53Z</time></trkpt><trkpt lat="43.102016487110916" lon="-0.15828182513528283"><ele>353.0</ele><time>2026-04-01T08:38:54Z</time></trkpt><trkpt lat="43.101952770870156" lon="-0.1581944122267913"><ele>355.0</ele><time>2026-04-01T08:38:55Z</time></trkpt><trkpt lat="43.10189230937061" lon="-0.15811130193324532"><ele>357.0</ele><time>2026-04-01T08:38:56Z</time></trkpt><trkpt lat="43.10183169153521" lon="-0.15802836418098842"><ele>359.0</ele><time>2026-04-01T08:38:57Z</time></trkpt><trkpt lat="43.101775918021296" lon="-0.15795408219471171"><ele>361.0</ele><time>2026-04-01T08:38:58Z</time></trkpt><trkpt lat="43.10171745879717" lon="-0.1578771532716419"><ele>363.0</ele><time>2026-04-01T08:38:59Z</time></trkpt><trkpt lat="43.101656355978875" lon="-0.1577946852882093"><ele>363.0</ele><time>2026-04-01T08:39:00Z</time></trkpt><trkpt lat="43.10159186349623" lon="-0.15770085842646686"><ele>363.0</ele><time>2026-04-01T08:39:01Z</time></trkpt><trkpt lat="43.10152021171883" lon="-0.15759740242345335"><ele>363.0</ele><time>2026-04-01T08:39:02Z</time></trkpt><trkpt lat="43.1014450317408" lon="-0.15745733283139393"><ele>363.0</ele><time>2026-04-01T08:39:03Z</time></trkpt><trkpt lat="43.10137838486622" lon="-0.15731010231526169"><ele>359.25</ele><time>2026-04-01T08:39:04Z</time></trkpt><trkpt lat="43.10132703723819" lon="-0.15714574913062201"><ele>355.5</ele><time>2026-04-01T08:39:05Z</time></trkpt><trkpt lat="43.101289513084446" lon="-0.15696335405057626"><ele>351.75</ele><time>2026-04-01T08:39:06Z</time></trkpt><trkpt lat="43.10126064805478" lon="-0.15677494276273596"><ele>348.0</ele><time>2026-04-01T08:39:07Z</time></trkpt><trkpt lat="43.10120336910703" lon="-0.1565986350348501"><ele>350.25</ele><time>2026-04-01T08:39:08Z</time></trkpt><trkpt lat="43.101156445779885" lon="-0.1564084454156862"><ele>352.5</ele><time>2026-04-01T08:39:09Z</time></trkpt><trkpt lat="43.10110757708362" lon="-0.1562078755834049"><ele>354.75</ele><time>2026-04-01T08:39:10Z</time></trkpt><trkpt lat="43.101063017057044" lon="-0.15601747350824338"><ele>357.0</ele><time>2026-04-01T08:39:11Z</time></trkpt><trkpt lat="43.10102202942775" lon="-0.15583663772612413"><ele>359.3333333333333</ele><time>2026-04-01T08:39:12Z</time></trkpt><trkpt lat="43.10098103334323" lon="-0.155655764627198"><ele>361.66666666666663</ele><time>2026-04-01T08:39:13Z</time></trkpt><trkpt lat="43.10093791120887" lon="-0.15544531816693663"><ele>364.0</ele><time>2026-04-01T08:39:14Z</time></trkpt><trkpt lat="43.10089876590111" lon="-0.15521167392283589"><ele>364.0</ele><time>2026-04-01T08:39:15Z</time></trkpt><trkpt lat="43.10087056659209" lon="-0.154959820269704"><ele>364.0</ele><time>2026-04-01T08:39:16Z</time></trkpt><trkpt lat="43.10083592236993" lon="-0.15470046183806935"><ele>364.0</ele><time>2026-04-01T08:39:17Z</time></trkpt><trkpt lat="43.100803191393446" lon="-0.15444501689637058"><ele>364.66666666666663</ele><time>2026-04-01T08:39:18Z</time></trkpt><trkpt lat="43.1007648830783" lon="-0.1541768181786658"><ele>365.3333333333333</ele><time>2026-04-01T08:39:19Z</time></trkpt><trkpt lat="43.10073123147497" lon="-0.15392467156947923"><ele>366.0</ele><time>2026-04-01T08:39:20Z</time></trkpt><trkpt lat="43.10069915065175" lon="-0.1536817795034872"><ele>361.6666666666667</ele><time>2026-04-01T08:39:21Z</time></trkpt><trkpt lat="43.1006656552184" lon="-0.153449291080072"><ele>357.33333333333337</ele><time>2026-04-01T08:39:22Z</time></trkpt><trkpt lat="43.100644483711726" lon="-0.15322726373391135"><ele>353.0</ele><time>2026-04-01T08:39:23Z</time></trkpt><trkpt lat="43.10065143577662" lon="-0.15298969278408495"><ele>353.0</ele><time>2026-04-01T08:39:24Z</time></trkpt><trkpt lat="43.10069811436774" lon="-0.1527431013205316"><ele>353.0</ele><time>2026-04-01T08:39:25Z</time></trkpt><trkpt lat="43.10075631401378" lon="-0.15249195390108186"><ele>353.0</ele><time>2026-04-01T08:39:26Z</time></trkpt><trkpt lat="43.100812449877296" lon="-0.15223436449767355"><ele>354.0</ele><time>2026-04-01T08:39:27Z</time></trkpt><trkpt lat="43.100867669290714" lon="-0.15196500304068444"><ele>355.0</ele><time>2026-04-01T08:39:28Z</time></trkpt><trkpt lat="43.10092078112109" lon="-0.15169974233017938"><ele>356.0</ele><time>2026-04-01T08:39:29Z</time></trkpt><trkpt lat="43.10097107037164" lon="-0.1514327693616296"><ele>356.0</ele><time>2026-04-01T08:39:30Z</time></trkpt><trkpt lat="43.10101857136864" lon="-0.15116492092524705"><ele>356.0</ele><time>2026-04-01T08:39:31Z</time></trkpt><trkpt lat="43.10106771636942" lon="-0.15090392669647743"><ele>356.0</ele><time>2026-04-01T08:39:32Z</time></trkpt><trkpt lat="43.10111804166169" lon="-0.1506410003908967"><ele>355.6666666666667</ele><time>2026-04-01T08:39:33Z</time></trkpt><trkpt lat="43.10116844225911" lon="-0.15037754278437943"><ele>355.3333333333333</ele><time>2026-04-01T08:39:34Z</time></trkpt><trkpt lat="43.10121775492611" lon="-0.15011554316241266"><ele>355.0</ele><time>2026-04-01T08:39:35Z</time></trkpt><trkpt lat="43.10126303964887" lon="-0.14985700144451147"><ele>355.0</ele><time>2026-04-01T08:39:36Z</time></trkpt><trkpt lat="43.10131002551785" lon="-0.14959271747066494"><ele>355.0</ele><time>2026-04-01T08:39:37Z</time></trkpt><trkpt lat="43.10135963097454" lon="-0.14932220294858245"><ele>355.0</ele><time>2026-04-01T08:39:38Z</time></trkpt><trkpt lat="43.10140790390786" lon="-0.14904992438338752"><ele>354.66666666666663</ele><time>2026-04-01T08:39:39Z</time></trkpt><trkpt lat="43.1014573948748" lon="-0.14878290597672297"><ele>354.3333333333333</ele><time>2026-04-01T08:39:40Z</time></trkpt><trkpt lat="43.101508021280814" lon="-0.14851381335261185"><ele>354.0</ele><time>2026-04-01T08:39:41Z</time></trkpt><trkpt lat="43.10155615742519" lon="-0.1482411767055213"><ele>356.3333333333333</ele><time>2026-04-01T08:39:42Z</time></trkpt><trkpt lat="43.10160008727565" lon="-0.147973470935137"><ele>358.66666666666663</ele><time>2026-04-01T08:39:43Z</time></trkpt><trkpt lat="43.10164786055367" lon="-0.14770181490956316"><ele>361.0</ele><time>2026-04-01T08:39:44Z</time></trkpt><trkpt lat="43.10169622161452" lon="-0.147433273405496"><ele>361.0</ele><time>2026-04-01T08:39:45Z</time></trkpt><trkpt lat="43.1017550649418" lon="-0.14715888142414046"><ele>361.0</ele><time>2026-04-01T08:39:46Z</time></trkpt><trkpt lat="43.1018221501508" lon="-0.1469023446366932"><ele>361.0</ele><time>2026-04-01T08:39:47Z</time></trkpt><trkpt lat="43.101908848067445" lon="-0.14664562730867498"><ele>360.3333333333333</ele><time>2026-04-01T08:39:48Z</time></trkpt><trkpt lat="43.1020059953189" lon="-0.14640452584021196"><ele>359.6666666666667</ele><time>2026-04-01T08:39:49Z</time></trkpt><trkpt lat="43.10211509189192" lon="-0.14616890726244458"><ele>359.0</ele><time>2026-04-01T08:39:50Z</time></trkpt><trkpt lat="43.1022345087099" lon="-0.14594119135595673"><ele>359.0</ele><time>2026-04-01T08:39:51Z</time></trkpt><trkpt lat="43.10236299809006" lon="-0.14571696725733452"><ele>359.0</ele><time>2026-04-01T08:39:52Z</time></trkpt><trkpt lat="43.10249719035178" lon="-0.14550364636964938"><ele>359.0</ele><time>2026-04-01T08:39:53Z</time></trkpt><trkpt lat="43.102637039311006" lon="-0.14529659760556468"><ele>360.0</ele><time>2026-04-01T08:39:54Z</time></trkpt><trkpt lat="43.10278191115103" lon="-0.14509032227109436"><ele>361.0</ele><time>2026-04-01T08:39:55Z</time></trkpt><trkpt lat="43.1029243329067" lon="-0.1448781091389824"><ele>362.0</ele><time>2026-04-01T08:39:56Z</time></trkpt><trkpt lat="43.10306357521322" lon="-0.14465742555931368"><ele>362.0</ele><time>2026-04-01T08:39:57Z</time></trkpt><trkpt lat="43.10319412290362" lon="-0.1444286332722722"><ele>362.0</ele><time>2026-04-01T08:39:58Z</time></trkpt><trkpt lat="43.10331864631146" lon="-0.14418959160523057"><ele>362.0</ele><time>2026-04-01T08:39:59Z</time></trkpt><trkpt lat="43.103431873252966" lon="-0.1439486514661036"><ele>358.33333333333337</ele><time>2026-04-01T08:40:00Z</time></trkpt><trkpt lat="43.103542347856305" lon="-0.14371240508070263"><ele>354.6666666666667</ele><time>2026-04-01T08:40:01Z</time></trkpt><trkpt lat="43.103658381759985" lon="-0.14348097429562487"><ele>351.0</ele><time>2026-04-01T08:40:02Z</time></trkpt><trkpt lat="43.10376327438124" lon="-0.14327399585207834"><ele>347.6666666666667</ele><time>2026-04-01T08:40:03Z</time></trkpt><trkpt lat="43.103851019485894" lon="-0.14307808757572085"><ele>344.33333333333337</ele><time>2026-04-01T08:40:04Z</time></trkpt><trkpt lat="43.10391739989313" lon="-0.14286765590604997"><ele>341.0</ele><time>2026-04-01T08:40:05Z</time></trkpt><trkpt lat="43.10394887498013" lon="-0.1426436448932051"><ele>341.0</ele><time>2026-04-01T08:40:06Z</time></trkpt><trkpt lat="43.10391372987345" lon="-0.14242376213531147"><ele>341.0</ele><time>2026-04-01T08:40:07Z</time></trkpt><trkpt lat="43.10387747863383" lon="-0.142183735071353"><ele>341.0</ele><time>2026-04-01T08:40:08Z</time></trkpt><trkpt lat="43.10383493407851" lon="-0.1419104241999431"><ele>341.6666666666667</ele><time>2026-04-01T08:40:09Z</time></trkpt><trkpt lat="43.10377517983229" lon="-0.14162280434747196"><ele>342.3333333333333</ele><time>2026-04-01T08:40:10Z</time></trkpt><trkpt lat="43.10373013287051" lon="-0.14133964247683112"><ele>343.0</ele><time>2026-04-01T08:40:11Z</time></trkpt><trkpt lat="43.103695612597484" lon="-0.1410786527984391"><ele>344.0</ele><time>2026-04-01T08:40:12Z</time></trkpt><trkpt lat="43.10365827672934" lon="-0.1408165668282523"><ele>345.0</ele><time>2026-04-01T08:40:13Z</time></trkpt><trkpt lat="43.1036242176455" lon="-0.14055365714799656"><ele>346.0</ele><time>2026-04-01T08:40:14Z</time></trkpt><trkpt lat="43.10360805012357" lon="-0.1402816912801822"><ele>346.66666666666663</ele><time>2026-04-01T08:40:15Z</time></trkpt><trkpt lat="43.10361026102938" lon="-0.14000733537045948"><ele>347.3333333333333</ele><time>2026-04-01T08:40:16Z</time></trkpt><trkpt lat="43.10361511398634" lon="-0.13972771157879607"><ele>348.0</ele><time>2026-04-01T08:40:17Z</time></trkpt><trkpt lat="43.103618509854876" lon="-0.13943582158455958"><ele>348.0</ele><time>2026-04-01T08:40:18Z</time></trkpt><trkpt lat="43.10361354315537" lon="-0.13914757627042548"><ele>348.0</ele><time>2026-04-01T08:40:19Z</time></trkpt><trkpt lat="43.10359496427366" lon="-0.13886143080780317"><ele>348.0</ele><time>2026-04-01T08:40:20Z</time></trkpt><trkpt lat="43.103571370803664" lon="-0.138579935822292"><ele>348.6666666666667</ele><time>2026-04-01T08:40:21Z</time></trkpt><trkpt lat="43.103536673908515" lon="-0.1383020715149618"><ele>349.33333333333337</ele><time>2026-04-01T08:40:22Z</time></trkpt><trkpt lat="43.103489480169856" lon="-0.13802884417577282"><ele>350.0</ele><time>2026-04-01T08:40:23Z</time></trkpt><trkpt lat="43.103432391851804" lon="-0.13776103798619085"><ele>349.33333333333337</ele><time>2026-04-01T08:40:24Z</time></trkpt><trkpt lat="43.10336715423666" lon="-0.13749197728138546"><ele>348.6666666666667</ele><time>2026-04-01T08:40:25Z</time></trkpt><trkpt lat="43.10329040278999" lon="-0.13721834610475692"><ele>348.0</ele><time>2026-04-01T08:40:26Z</time></trkpt><trkpt lat="43.10320593877771" lon="-0.13694965580127913"><ele>348.0</ele><time>2026-04-01T08:40:27Z</time></trkpt><trkpt lat="43.10311325357835" lon="-0.13668220147124713"><ele>348.0</ele><time>2026-04-01T08:40:28Z</time></trkpt><trkpt lat="43.10301008803368" lon="-0.13642425030879077"><ele>348.0</ele><time>2026-04-01T08:40:29Z</time></trkpt><trkpt lat="43.10290701732508" lon="-0.13616818147033308"><ele>350.0</ele><time>2026-04-01T08:40:30Z</time></trkpt><trkpt lat="43.10283134267183" lon="-0.13590152009516107"><ele>352.0</ele><time>2026-04-01T08:40:31Z</time></trkpt><trkpt lat="43.1027866187597" lon="-0.1356250610952186"><ele>354.0</ele><time>2026-04-01T08:40:32Z</time></trkpt><trkpt lat="43.102753914000665" lon="-0.13534241001033379"><ele>356.3333333333333</ele><time>2026-04-01T08:40:33Z</time></trkpt><trkpt lat="43.10271527730062" lon="-0.13508215511680954"><ele>358.66666666666663</ele><time>2026-04-01T08:40:34Z</time></trkpt><trkpt lat="43.10267271262516" lon="-0.13484208751315355"><ele>361.0</ele><time>2026-04-01T08:40:35Z</time></trkpt><trkpt lat="43.10263279156539" lon="-0.1346094059423574"><ele>362.66666666666663</ele><time>2026-04-01T08:40:36Z</time></trkpt><trkpt lat="43.10259150941243" lon="-0.134355273906478"><ele>364.3333333333333</ele><time>2026-04-01T08:40:37Z</time></trkpt><trkpt lat="43.10254634844551" lon="-0.1340832044065601"><ele>366.0</ele><time>2026-04-01T08:40:38Z</time></trkpt><trkpt lat="43.10249659007069" lon="-0.1338116635582402"><ele>365.0</ele><time>2026-04-01T08:40:39Z</time></trkpt><trkpt lat="43.10244959287716" lon="-0.13356164374986998"><ele>364.0</ele><time>2026-04-01T08:40:40Z</time></trkpt><trkpt lat="43.102406441538434" lon="-0.13332254978655322"><ele>363.0</ele><time>2026-04-01T08:40:41Z</time></trkpt><trkpt lat="43.102367319795185" lon="-0.13307715844379603"><ele>363.0</ele><time>2026-04-01T08:40:42Z</time></trkpt><trkpt lat="43.10232844781637" lon="-0.13280803049686635"><ele>363.0</ele><time>2026-04-01T08:40:43Z</time></trkpt><trkpt lat="43.10228666306224" lon="-0.13253186304431863"><ele>363.0</ele><time>2026-04-01T08:40:44Z</time></trkpt><trkpt lat="43.102240429208294" lon="-0.13225196781834153"><ele>364.0</ele><time>2026-04-01T08:40:45Z</time></trkpt><trkpt lat="43.102177849973415" lon="-0.13197244653138662"><ele>365.0</ele><time>2026-04-01T08:40:46Z</time></trkpt><trkpt lat="43.102125043984856" lon="-0.1316608099309987"><ele>366.0</ele><time>2026-04-01T08:40:47Z</time></trkpt><trkpt lat="43.10207055078504" lon="-0.13133917988195176"><ele>366.0</ele><time>2026-04-01T08:40:48Z</time></trkpt><trkpt lat="43.10201553966537" lon="-0.1310144929602665"><ele>366.0</ele><time>2026-04-01T08:40:49Z</time></trkpt><trkpt lat="43.10196054021065" lon="-0.1306898748883121"><ele>367.5</ele><time>2026-04-01T08:40:50Z</time></trkpt><trkpt lat="43.10191947505222" lon="-0.13036125338976057"><ele>369.0</ele><time>2026-04-01T08:40:51Z</time></trkpt><trkpt lat="43.10185633457794" lon="-0.13003614099839492"><ele>369.0</ele><time>2026-04-01T08:40:52Z</time></trkpt><trkpt lat="43.101800903628344" lon="-0.1297113299888579"><ele>369.0</ele><time>2026-04-01T08:40:53Z</time></trkpt><trkpt lat="43.10174665937091" lon="-0.12938281678291172"><ele>369.0</ele><time>2026-04-01T08:40:54Z</time></trkpt><trkpt lat="43.10169233586587" lon="-0.12906143600606157"><ele>369.0</ele><time>2026-04-01T08:40:55Z</time></trkpt><trkpt lat="43.1016382892993" lon="-0.1287523909393582"><ele>368.3333333333333</ele><time>2026-04-01T08:40:56Z</time></trkpt><trkpt lat="43.10158230499126" lon="-0.12845310812734415"><ele>367.66666666666663</ele><time>2026-04-01T08:40:57Z</time></trkpt><trkpt lat="43.101533065569924" lon="-0.12817366298938002"><ele>367.0</ele><time>2026-04-01T08:40:58Z</time></trkpt><trkpt lat="43.10148383953676" lon="-0.12788790558551372"><ele>366.0</ele><time>2026-04-01T08:40:59Z</time></trkpt><trkpt lat="43.10144529350768" lon="-0.12761004395372566"><ele>365.0</ele><time>2026-04-01T08:41:00Z</time></trkpt><trkpt lat="43.101425846861815" lon="-0.12732225038475095"><ele>364.0</ele><time>2026-04-01T08:41:01Z</time></trkpt><trkpt lat="43.101437049080104" lon="-0.12703468952989788"><ele>362.3333333333333</ele><time>2026-04-01T08:41:02Z</time></trkpt><trkpt lat="43.101458244793115" lon="-0.12675987590016757"><ele>360.6666666666667</ele><time>2026-04-01T08:41:03Z</time></trkpt><trkpt lat="43.10147629206997" lon="-0.1264922450814888"><ele>359.0</ele><time>2026-04-01T08:41:04Z</time></trkpt><trkpt lat="43.101486930825054" lon="-0.12623231371391874"><ele>359.0</ele><time>2026-04-01T08:41:05Z</time></trkpt><trkpt lat="43.10149852538578" lon="-0.1259700276384791"><ele>359.0</ele><time>2026-04-01T08:41:06Z</time></trkpt><trkpt lat="43.101528282205614" lon="-0.12570857644073524"><ele>359.0</ele><time>2026-04-01T08:41:07Z</time></trkpt><trkpt lat="43.10158252347528" lon="-0.12545014744346636"><ele>360.0</ele><time>2026-04-01T08:41:08Z</time></trkpt><trkpt lat="43.101658725685034" lon="-0.125191407654528"><ele>361.0</ele><time>2026-04-01T08:41:09Z</time></trkpt><trkpt lat="43.10175071358668" lon="-0.12493794907633446"><ele>362.0</ele><time>2026-04-01T08:41:10Z</time></trkpt><trkpt lat="43.101857023741054" lon="-0.12466669693246865"><ele>362.0</ele><time>2026-04-01T08:41:11Z</time></trkpt><trkpt lat="43.101969685958466" lon="-0.12436578062685597"><ele>362.0</ele><time>2026-04-01T08:41:12Z</time></trkpt><trkpt lat="43.10208303970763" lon="-0.12408011356813878"><ele>360.0</ele><time>2026-04-01T08:41:13Z</time></trkpt><trkpt lat="43.10220045001197" lon="-0.1237698807808977"><ele>358.0</ele><time>2026-04-01T08:41:14Z</time></trkpt><trkpt lat="43.10232181428001" lon="-0.12345444349495277"><ele>361.0</ele><time>2026-04-01T08:41:15Z</time></trkpt><trkpt lat="43.10244909804093" lon="-0.12316738808296339"><ele>364.0</ele><time>2026-04-01T08:41:16Z</time></trkpt><trkpt lat="43.102554295056706" lon="-0.1228832121526621"><ele>364.0</ele><time>2026-04-01T08:41:17Z</time></trkpt><trkpt lat="43.10266905941176" lon="-0.12260405195301918"><ele>364.0</ele><time>2026-04-01T08:41:18Z</time></trkpt><trkpt lat="43.102756807728824" lon="-0.12230486452234965"><ele>361.3333333333333</ele><time>2026-04-01T08:41:19Z</time></trkpt><trkpt lat="43.10284930686484" lon="-0.12203675981486037"><ele>358.6666666666667</ele><time>2026-04-01T08:41:20Z</time></trkpt><trkpt lat="43.10292157604745" lon="-0.12176494988220307"><ele>356.0</ele><time>2026-04-01T08:41:21Z</time></trkpt><trkpt lat="43.10298220830177" lon="-0.12150436777457461"><ele>355.33333333333337</ele><time>2026-04-01T08:41:22Z</time></trkpt><trkpt lat="43.10301280443062" lon="-0.1212388444402233"><ele>354.6666666666667</ele><time>2026-04-01T08:41:23Z</time></trkpt><trkpt lat="43.103061393551464" lon="-0.12099163601422026"><ele>354.0</ele><time>2026-04-01T08:41:24Z</time></trkpt><trkpt lat="43.10309053238516" lon="-0.12074938057285885"><ele>354.3333333333333</ele><time>2026-04-01T08:41:25Z</time></trkpt><trkpt lat="43.10312005459816" lon="-0.12051413578638097"><ele>354.66666666666663</ele><time>2026-04-01T08:41:26Z</time></trkpt><trkpt lat="43.103150576559884" lon="-0.12030451191057447"><ele>355.0</ele><time>2026-04-01T08:41:27Z</time></trkpt><trkpt lat="43.1031892726823" lon="-0.12009551543191943"><ele>355.3333333333333</ele><time>2026-04-01T08:41:28Z</time></trkpt><trkpt lat="43.103229927030974" lon="-0.11989299757797449"><ele>355.6666666666667</ele><time>2026-04-01T08:41:29Z</time></trkpt><trkpt lat="43.10327665337989" lon="-0.11968053063445855"><ele>356.0</ele><time>2026-04-01T08:41:30Z</time></trkpt><trkpt lat="43.10333204096299" lon="-0.11947053309920241"><ele>357.0</ele><time>2026-04-01T08:41:31Z</time></trkpt><trkpt lat="43.10338794260679" lon="-0.11927628898958721"><ele>358.0</ele><time>2026-04-01T08:41:32Z</time></trkpt><trkpt lat="43.103436587951705" lon="-0.11907723975791569"><ele>359.0</ele><time>2026-04-01T08:41:33Z</time></trkpt><trkpt lat="43.103483828900174" lon="-0.11887589939287667"><ele>359.0</ele><time>2026-04-01T08:41:34Z</time></trkpt><trkpt lat="43.10353186564262" lon="-0.11868407214666218"><ele>359.0</ele><time>2026-04-01T08:41:35Z</time></trkpt><trkpt lat="43.10357034367609" lon="-0.1185082816876595"><ele>359.0</ele><time>2026-04-01T08:41:36Z</time></trkpt><trkpt lat="43.10361268275251" lon="-0.1183134824921659"><ele>359.0</ele><time>2026-04-01T08:41:37Z</time></trkpt><trkpt lat="43.103652041348205" lon="-0.11810063055604444"><ele>359.0</ele><time>2026-04-01T08:41:38Z</time></trkpt><trkpt lat="43.10368784303284" lon="-0.1178822862504558"><ele>359.0</ele><time>2026-04-01T08:41:39Z</time></trkpt><trkpt lat="43.10371461548131" lon="-0.11765764261692181"><ele>359.0</ele><time>2026-04-01T08:41:40Z</time></trkpt><trkpt lat="43.10374064913645" lon="-0.11741145832829011"><ele>358.6666666666667</ele><time>2026-04-01T08:41:41Z</time></trkpt><trkpt lat="43.1037641532964" lon="-0.1171718111787482"><ele>358.3333333333333</ele><time>2026-04-01T08:41:42Z</time></trkpt><trkpt lat="43.103791943640466" lon="-0.11692118181759907"><ele>358.0</ele><time>2026-04-01T08:41:43Z</time></trkpt><trkpt lat="43.103820396547206" lon="-0.11667751045403858"><ele>359.0</ele><time>2026-04-01T08:41:44Z</time></trkpt><trkpt lat="43.10385084316782" lon="-0.11642554352357659"><ele>360.0</ele><time>2026-04-01T08:41:45Z</time></trkpt><trkpt lat="43.10387722607504" lon="-0.11617109489710377"><ele>361.0</ele><time>2026-04-01T08:41:46Z</time></trkpt><trkpt lat="43.10390118433216" lon="-0.11591793025790943"><ele>360.3333333333333</ele><time>2026-04-01T08:41:47Z</time></trkpt><trkpt lat="43.10392223418192" lon="-0.1156658407878846"><ele>359.6666666666667</ele><time>2026-04-01T08:41:48Z</time></trkpt><trkpt lat="43.10394368986599" lon="-0.11542070877273979"><ele>359.0</ele><time>2026-04-01T08:41:49Z</time></trkpt><trkpt lat="43.10396934343858" lon="-0.11518312267183604"><ele>359.0</ele><time>2026-04-01T08:41:50Z</time></trkpt><trkpt lat="43.10399407815646" lon="-0.11494912070143846"><ele>359.0</ele><time>2026-04-01T08:41:51Z</time></trkpt><trkpt lat="43.10401104440695" lon="-0.11472236583076101"><ele>359.0</ele><time>2026-04-01T08:41:52Z</time></trkpt><trkpt lat="43.10402197015854" lon="-0.11446759824851596"><ele>358.6666666666667</ele><time>2026-04-01T08:41:53Z</time></trkpt><trkpt lat="43.10402374746191" lon="-0.11420870907788602"><ele>358.3333333333333</ele><time>2026-04-01T08:41:54Z</time></trkpt><trkpt lat="43.10402494350018" lon="-0.1139347397115549"><ele>358.0</ele><time>2026-04-01T08:41:55Z</time></trkpt><trkpt lat="43.104030193873854" lon="-0.11366278251120539"><ele>359.0</ele><time>2026-04-01T08:41:56Z</time></trkpt><trkpt lat="43.10403761916666" lon="-0.11338926815820788"><ele>360.0</ele><time>2026-04-01T08:41:57Z</time></trkpt><trkpt lat="43.104043179672715" lon="-0.11310766395859227"><ele>361.0</ele><time>2026-04-01T08:41:58Z</time></trkpt><trkpt lat="43.104047770683785" lon="-0.11282624249885434"><ele>361.0</ele><time>2026-04-01T08:41:59Z</time></trkpt><trkpt lat="43.10405134282015" lon="-0.11253588590933847"><ele>361.0</ele><time>2026-04-01T08:42:00Z</time></trkpt><trkpt lat="43.10405445139188" lon="-0.11224949477540389"><ele>361.0</ele><time>2026-04-01T08:42:01Z</time></trkpt><trkpt lat="43.10405813450229" lon="-0.11196216362495875"><ele>361.3333333333333</ele><time>2026-04-01T08:42:02Z</time></trkpt><trkpt lat="43.10405787642999" lon="-0.11168068853467877"><ele>361.6666666666667</ele><time>2026-04-01T08:42:03Z</time></trkpt><trkpt lat="43.10404012029941" lon="-0.11140262584250286"><ele>362.0</ele><time>2026-04-01T08:42:04Z</time></trkpt><trkpt lat="43.10399623444836" lon="-0.1111357190433064"><ele>362.6666666666667</ele><time>2026-04-01T08:42:05Z</time></trkpt><trkpt lat="43.103945234897175" lon="-0.11085241395544254"><ele>363.3333333333333</ele><time>2026-04-01T08:42:06Z</time></trkpt><trkpt lat="43.10389731016112" lon="-0.11054280764311236"><ele>364.0</ele><time>2026-04-01T08:42:07Z</time></trkpt><trkpt lat="43.103850896230476" lon="-0.11022250699565403"><ele>367.5</ele><time>2026-04-01T08:42:08Z</time></trkpt><trkpt lat="43.10380286717185" lon="-0.10990223245784327"><ele>371.0</ele><time>2026-04-01T08:42:09Z</time></trkpt><trkpt lat="43.10375533092658" lon="-0.10958846237346308"><ele>371.0</ele><time>2026-04-01T08:42:10Z</time></trkpt><trkpt lat="43.103709204066774" lon="-0.10927845460591384"><ele>371.0</ele><time>2026-04-01T08:42:11Z</time></trkpt><trkpt lat="43.1036629986348" lon="-0.10894888851504721"><ele>375.0</ele><time>2026-04-01T08:42:12Z</time></trkpt><trkpt lat="43.103616553565615" lon="-0.10861389369695491"><ele>379.0</ele><time>2026-04-01T08:42:13Z</time></trkpt><trkpt lat="43.10356742760538" lon="-0.10828647282610544"><ele>382.0</ele><time>2026-04-01T08:42:14Z</time></trkpt><trkpt lat="43.103519414312636" lon="-0.10795895867050918"><ele>385.0</ele><time>2026-04-01T08:42:15Z</time></trkpt><trkpt lat="43.10347169254413" lon="-0.10763134079458472"><ele>390.0</ele><time>2026-04-01T08:42:16Z</time></trkpt><trkpt lat="43.10342356652301" lon="-0.10730023298856546"><ele>395.0</ele><time>2026-04-01T08:42:17Z</time></trkpt><trkpt lat="43.10337804581374" lon="-0.10697254039694389"><ele>395.0</ele><time>2026-04-01T08:42:18Z</time></trkpt><trkpt lat="43.1033326636322" lon="-0.10664605818270502"><ele>395.0</ele><time>2026-04-01T08:42:19Z</time></trkpt><trkpt lat="43.10328629464174" lon="-0.10632576211718417"><ele>383.0</ele><time>2026-04-01T08:42:20Z</time></trkpt><trkpt lat="43.103242751036184" lon="-0.10600285312701985"><ele>371.0</ele><time>2026-04-01T08:42:21Z</time></trkpt><trkpt lat="43.10320068853833" lon="-0.1056820799481559"><ele>371.0</ele><time>2026-04-01T08:42:22Z</time></trkpt><trkpt lat="43.10315882897519" lon="-0.10535377254388177"><ele>371.0</ele><time>2026-04-01T08:42:23Z</time></trkpt><trkpt lat="43.10311141866042" lon="-0.10502859809412642"><ele>371.6666666666667</ele><time>2026-04-01T08:42:24Z</time></trkpt><trkpt lat="43.10305725720639" lon="-0.10471661264660564"><ele>372.3333333333333</ele><time>2026-04-01T08:42:25Z</time></trkpt><trkpt lat="43.10300919714437" lon="-0.10443797640468987"><ele>373.0</ele><time>2026-04-01T08:42:26Z</time></trkpt><trkpt lat="43.10295398536862" lon="-0.1041596377998178"><ele>376.5</ele><time>2026-04-01T08:42:27Z</time></trkpt><trkpt lat="43.102880457590565" lon="-0.10384918085088049"><ele>380.0</ele><time>2026-04-01T08:42:28Z</time></trkpt><trkpt lat="43.10278767228634" lon="-0.10352838995089245"><ele>385.0</ele><time>2026-04-01T08:42:29Z</time></trkpt><trkpt lat="43.102688935095365" lon="-0.10321777884962424"><ele>390.0</ele><time>2026-04-01T08:42:30Z</time></trkpt><trkpt lat="43.102589892343396" lon="-0.10291067901041102"><ele>390.0</ele><time>2026-04-01T08:42:31Z</time></trkpt><trkpt lat="43.102492508667936" lon="-0.10260565001822584"><ele>390.0</ele><time>2026-04-01T08:42:32Z</time></trkpt><trkpt lat="43.10238995060201" lon="-0.10229767473128583"><ele>381.0</ele><time>2026-04-01T08:42:33Z</time></trkpt><trkpt lat="43.10228206712051" lon="-0.1019976829518713"><ele>372.0</ele><time>2026-04-01T08:42:34Z</time></trkpt><trkpt lat="43.10216479018747" lon="-0.10170903683128205"><ele>377.0</ele><time>2026-04-01T08:42:35Z</time></trkpt><trkpt lat="43.10203912989476" lon="-0.10142923337606272"><ele>382.0</ele><time>2026-04-01T08:42:36Z</time></trkpt><trkpt lat="43.101920298484494" lon="-0.10114389638926803"><ele>382.0</ele><time>2026-04-01T08:42:37Z</time></trkpt><trkpt lat="43.10182150467416" lon="-0.10084817281831837"><ele>382.0</ele><time>2026-04-01T08:42:38Z</time></trkpt><trkpt lat="43.10172204400801" lon="-0.10055233521864271"><ele>378.0</ele><time>2026-04-01T08:42:39Z</time></trkpt><trkpt lat="43.101617366521836" lon="-0.10026513914946049"><ele>374.0</ele><time>2026-04-01T08:42:40Z</time></trkpt><trkpt lat="43.10152553166569" lon="-0.09997346075314607"><ele>376.0</ele><time>2026-04-01T08:42:41Z</time></trkpt><trkpt lat="43.10145655611732" lon="-0.09967478442458383"><ele>378.0</ele><time>2026-04-01T08:42:42Z</time></trkpt><trkpt lat="43.10138615159944" lon="-0.09938478620037208"><ele>378.0</ele><time>2026-04-01T08:42:43Z</time></trkpt><trkpt lat="43.10130658753252" lon="-0.09909322929798427"><ele>378.0</ele><time>2026-04-01T08:42:44Z</time></trkpt><trkpt lat="43.10123804307403" lon="-0.09880552986727427"><ele>378.0</ele><time>2026-04-01T08:42:45Z</time></trkpt><trkpt lat="43.10117236649708" lon="-0.09851286572123671"><ele>382.66666666666663</ele><time>2026-04-01T08:42:46Z</time></trkpt><trkpt lat="43.101078168893096" lon="-0.0982480893271158"><ele>387.3333333333333</ele><time>2026-04-01T08:42:47Z</time></trkpt><trkpt lat="43.10097903832368" lon="-0.09797758948774228"><ele>392.0</ele><time>2026-04-01T08:42:48Z</time></trkpt><trkpt lat="43.100898873255304" lon="-0.09769964650968317"><ele>392.0</ele><time>2026-04-01T08:42:49Z</time></trkpt><trkpt lat="43.10081486221519" lon="-0.09742359692116101"><ele>392.0</ele><time>2026-04-01T08:42:50Z</time></trkpt><trkpt lat="43.10073297929107" lon="-0.09715690688149549"><ele>392.0</ele><time>2026-04-01T08:42:51Z</time></trkpt><trkpt lat="43.10065909053588" lon="-0.09691117444263182"><ele>385.66666666666663</ele><time>2026-04-01T08:42:52Z</time></trkpt><trkpt lat="43.1006111629353" lon="-0.0966708334268494"><ele>379.3333333333333</ele><time>2026-04-01T08:42:53Z</time></trkpt><trkpt lat="43.100586519413966" lon="-0.09643602038000612"><ele>373.0</ele><time>2026-04-01T08:42:54Z</time></trkpt><trkpt lat="43.10052379546648" lon="-0.09621272007697619"><ele>373.0</ele><time>2026-04-01T08:42:55Z</time></trkpt><trkpt lat="43.100429640723675" lon="-0.0960087499519113"><ele>373.0</ele><time>2026-04-01T08:42:56Z</time></trkpt><trkpt lat="43.100364078622626" lon="-0.09578684915090788"><ele>373.0</ele><time>2026-04-01T08:42:57Z</time></trkpt><trkpt lat="43.10035648477562" lon="-0.09552838410188329"><ele>373.3333333333333</ele><time>2026-04-01T08:42:58Z</time></trkpt><trkpt lat="43.10038358317784" lon="-0.09525231225863673"><ele>373.6666666666667</ele><time>2026-04-01T08:42:59Z</time></trkpt><trkpt lat="43.10040244854658" lon="-0.09496430430259441"><ele>374.0</ele><time>2026-04-01T08:43:00Z</time></trkpt><trkpt lat="43.100408528245616" lon="-0.09466685416575372"><ele>374.0</ele><time>2026-04-01T08:43:01Z</time></trkpt><trkpt lat="43.10041523562256" lon="-0.09434642177199908"><ele>374.0</ele><time>2026-04-01T08:43:02Z</time></trkpt><trkpt lat="43.10042797948971" lon="-0.09403584221145048"><ele>373.5</ele><time>2026-04-01T08:43:03Z</time></trkpt><trkpt lat="43.10043606656111" lon="-0.09372890667265574"><ele>373.0</ele><time>2026-04-01T08:43:04Z</time></trkpt><trkpt lat="43.100450444374914" lon="-0.09341624664029627"><ele>371.5</ele><time>2026-04-01T08:43:05Z</time></trkpt><trkpt lat="43.10048176022379" lon="-0.09310604229655221"><ele>370.0</ele><time>2026-04-01T08:43:06Z</time></trkpt><trkpt lat="43.100522885378275" lon="-0.09279852797813118"><ele>370.0</ele><time>2026-04-01T08:43:07Z</time></trkpt><trkpt lat="43.10056117744422" lon="-0.09249717292490367"><ele>370.0</ele><time>2026-04-01T08:43:08Z</time></trkpt><trkpt lat="43.10059733203542" lon="-0.09220279738586391"><ele>370.0</ele><time>2026-04-01T08:43:09Z</time></trkpt><trkpt lat="43.10063229085764" lon="-0.09191156340491297"><ele>369.5</ele><time>2026-04-01T08:43:10Z</time></trkpt><trkpt lat="43.10065030932835" lon="-0.09156790222269243"><ele>369.0</ele><time>2026-04-01T08:43:11Z</time></trkpt><trkpt lat="43.100679043797044" lon="-0.09128140798562447"><ele>369.0</ele><time>2026-04-01T08:43:12Z</time></trkpt><trkpt lat="43.10070370687034" lon="-0.09102221429780635"><ele>369.0</ele><time>2026-04-01T08:43:13Z</time></trkpt><trkpt lat="43.10073348856205" lon="-0.09077846186332542"><ele>369.0</ele><time>2026-04-01T08:43:14Z</time></trkpt><trkpt lat="43.10075381222996" lon="-0.09053735082657902"><ele>368.6666666666667</ele><time>2026-04-01T08:43:15Z</time></trkpt><trkpt lat="43.100695826414665" lon="-0.0903040166949136"><ele>368.33333333333337</ele><time>2026-04-01T08:43:16Z</time></trkpt><trkpt lat="43.1006482623959" lon="-0.0900574115581808"><ele>368.0</ele><time>2026-04-01T08:43:17Z</time></trkpt><trkpt lat="43.10063742338231" lon="-0.08981555265489738"><ele>367.33333333333337</ele><time>2026-04-01T08:43:18Z</time></trkpt><trkpt lat="43.10062580433686" lon="-0.08956891053608308"><ele>366.6666666666667</ele><time>2026-04-01T08:43:19Z</time></trkpt><trkpt lat="43.10066326884632" lon="-0.08932162014627387"><ele>366.0</ele><time>2026-04-01T08:43:20Z</time></trkpt><trkpt lat="43.10072995626896" lon="-0.08908221582442635"><ele>369.0</ele><time>2026-04-01T08:43:21Z</time></trkpt><trkpt lat="43.10079353740546" lon="-0.08882492077593822"><ele>372.0</ele><time>2026-04-01T08:43:22Z</time></trkpt><trkpt lat="43.100852653908866" lon="-0.08857318062336444"><ele>375.0</ele><time>2026-04-01T08:43:23Z</time></trkpt><trkpt lat="43.10090881724304" lon="-0.0883487790896234"><ele>374.0</ele><time>2026-04-01T08:43:24Z</time></trkpt><trkpt lat="43.100967941386834" lon="-0.08814460552519093"><ele>373.0</ele><time>2026-04-01T08:43:25Z</time></trkpt><trkpt lat="43.10103053906558" lon="-0.0879636583836883"><ele>372.0</ele><time>2026-04-01T08:43:26Z</time></trkpt><trkpt lat="43.101070256382265" lon="-0.08778800994669406"><ele>371.0</ele><time>2026-04-01T08:43:27Z</time></trkpt><trkpt lat="43.10108523137474" lon="-0.08758457181311764"><ele>370.6666666666667</ele><time>2026-04-01T08:43:28Z</time></trkpt><trkpt lat="43.101070051302045" lon="-0.08733778380060384"><ele>370.3333333333333</ele><time>2026-04-01T08:43:29Z</time></trkpt><trkpt lat="43.101028819302336" lon="-0.08706260319116998"><ele>370.0</ele><time>2026-04-01T08:43:30Z</time></trkpt><trkpt lat="43.10097440220778" lon="-0.08675423073533078"><ele>371.0</ele><time>2026-04-01T08:43:31Z</time></trkpt><trkpt lat="43.100916176413044" lon="-0.08644128919772495"><ele>372.0</ele><time>2026-04-01T08:43:32Z</time></trkpt><trkpt lat="43.10084968357842" lon="-0.0861264999890495"><ele>372.0</ele><time>2026-04-01T08:43:33Z</time></trkpt><trkpt lat="43.10079663818012" lon="-0.08584019245245164"><ele>372.0</ele><time>2026-04-01T08:43:34Z</time></trkpt><trkpt lat="43.10074055075188" lon="-0.08555078530766316"><ele>372.0</ele><time>2026-04-01T08:43:35Z</time></trkpt><trkpt lat="43.10068682429414" lon="-0.08526954440984423"><ele>372.0</ele><time>2026-04-01T08:43:36Z</time></trkpt><trkpt lat="43.100637074267496" lon="-0.08498848256621677"><ele>372.0</ele><time>2026-04-01T08:43:37Z</time></trkpt><trkpt lat="43.100590517042946" lon="-0.08469464601341545"><ele>372.0</ele><time>2026-04-01T08:43:38Z</time></trkpt><trkpt lat="43.10054224467989" lon="-0.08439170008846116"><ele>371.0</ele><time>2026-04-01T08:43:39Z</time></trkpt><trkpt lat="43.10049504489974" lon="-0.0840955146499918"><ele>370.0</ele><time>2026-04-01T08:43:40Z</time></trkpt><trkpt lat="43.10045443904832" lon="-0.08380573827965329"><ele>369.0</ele><time>2026-04-01T08:43:41Z</time></trkpt><trkpt lat="43.100426207069255" lon="-0.0835241833041279"><ele>369.6666666666667</ele><time>2026-04-01T08:43:42Z</time></trkpt><trkpt lat="43.10041038878652" lon="-0.08323019210867988"><ele>370.33333333333337</ele><time>2026-04-01T08:43:43Z</time></trkpt><trkpt lat="43.100390917778476" lon="-0.0829366367300456"><ele>371.0</ele><time>2026-04-01T08:43:44Z</time></trkpt><trkpt lat="43.100354102640196" lon="-0.08263202261991962"><ele>371.5</ele><time>2026-04-01T08:43:45Z</time></trkpt><trkpt lat="43.100287812093654" lon="-0.08232762345222573"><ele>372.0</ele><time>2026-04-01T08:43:46Z</time></trkpt><trkpt lat="43.10019526428669" lon="-0.08202282120775067"><ele>372.0</ele><time>2026-04-01T08:43:47Z</time></trkpt><trkpt lat="43.100091506954676" lon="-0.08172828107913024"><ele>372.0</ele><time>2026-04-01T08:43:48Z</time></trkpt><trkpt lat="43.099991749747865" lon="-0.08144440595999897"><ele>372.5</ele><time>2026-04-01T08:43:49Z</time></trkpt><trkpt lat="43.09989867226807" lon="-0.08115607235934542"><ele>373.0</ele><time>2026-04-01T08:43:50Z</time></trkpt><trkpt lat="43.099812511636735" lon="-0.08086867667449996"><ele>372.5</ele><time>2026-04-01T08:43:51Z</time></trkpt><trkpt lat="43.09971899019731" lon="-0.08058480937165971"><ele>372.0</ele><time>2026-04-01T08:43:52Z</time></trkpt><trkpt lat="43.0996271486875" lon="-0.08030092025215116"><ele>372.0</ele><time>2026-04-01T08:43:53Z</time></trkpt><trkpt lat="43.09953829275683" lon="-0.08001792520550019"><ele>372.0</ele><time>2026-04-01T08:43:54Z</time></trkpt><trkpt lat="43.09944319700526" lon="-0.07973126321744278"><ele>374.3333333333333</ele><time>2026-04-01T08:43:55Z</time></trkpt><trkpt lat="43.0993523835168" lon="-0.07945060706219764"><ele>376.66666666666663</ele><time>2026-04-01T08:43:56Z</time></trkpt><trkpt lat="43.09925950182694" lon="-0.07917349176931351"><ele>379.0</ele><time>2026-04-01T08:43:57Z</time></trkpt><trkpt lat="43.09917384426435" lon="-0.0789019645962373"><ele>379.3333333333333</ele><time>2026-04-01T08:43:58Z</time></trkpt><trkpt lat="43.0991010762345" lon="-0.07861661117888909"><ele>379.6666666666667</ele><time>2026-04-01T08:43:59Z</time></trkpt><trkpt lat="43.09906948805096" lon="-0.07833478753533765"><ele>380.0</ele><time>2026-04-01T08:44:00Z</time></trkpt><trkpt lat="43.09905310471928" lon="-0.07803969540001893"><ele>377.0</ele><time>2026-04-01T08:44:01Z</time></trkpt><trkpt lat="43.09905116477147" lon="-0.07775199884876377"><ele>374.0</ele><time>2026-04-01T08:44:02Z</time></trkpt><trkpt lat="43.0990463313911" lon="-0.07747954694654043"><ele>371.0</ele><time>2026-04-01T08:44:03Z</time></trkpt><trkpt lat="43.09904454112206" lon="-0.07722767862113074"><ele>370.25</ele><time>2026-04-01T08:44:04Z</time></trkpt><trkpt lat="43.09904852371549" lon="-0.07699287505969837"><ele>369.5</ele><time>2026-04-01T08:44:05Z</time></trkpt><trkpt lat="43.099061695943824" lon="-0.07679562508752141"><ele>368.75</ele><time>2026-04-01T08:44:06Z</time></trkpt><trkpt lat="43.09907130184746" lon="-0.0766259230066348"><ele>368.0</ele><time>2026-04-01T08:44:07Z</time></trkpt><trkpt lat="43.09904802556177" lon="-0.07647201272388889"><ele>367.75</ele><time>2026-04-01T08:44:08Z</time></trkpt><trkpt lat="43.09900063979258" lon="-0.076325211695151"><ele>367.5</ele><time>2026-04-01T08:44:09Z</time></trkpt><trkpt lat="43.09893987763262" lon="-0.07617828998301732"><ele>367.25</ele><time>2026-04-01T08:44:10Z</time></trkpt><trkpt lat="43.098866319733006" lon="-0.07604995286568164"><ele>367.0</ele><time>2026-04-01T08:44:11Z</time></trkpt><trkpt lat="43.098797584184524" lon="-0.07592734707659923"><ele>367.0</ele><time>2026-04-01T08:44:12Z</time></trkpt><trkpt lat="43.09876507525418" lon="-0.07579529779048515"><ele>367.0</ele><time>2026-04-01T08:44:13Z</time></trkpt><trkpt lat="43.09877252578829" lon="-0.07564490997573274"><ele>367.0</ele><time>2026-04-01T08:44:14Z</time></trkpt><trkpt lat="43.09882040824628" lon="-0.07547755706631491"><ele>367.0</ele><time>2026-04-01T08:44:15Z</time></trkpt><trkpt lat="43.098890101297386" lon="-0.07529229944963638"><ele>367.66666666666663</ele><time>2026-04-01T08:44:16Z</time></trkpt><trkpt lat="43.09897432341423" lon="-0.07508351728437498"><ele>368.3333333333333</ele><time>2026-04-01T08:44:17Z</time></trkpt><trkpt lat="43.099054267933845" lon="-0.07485599464522656"><ele>369.0</ele><time>2026-04-01T08:44:18Z</time></trkpt><trkpt lat="43.099142546652644" lon="-0.07460802503369415"><ele>369.3333333333333</ele><time>2026-04-01T08:44:19Z</time></trkpt><trkpt lat="43.099232359257606" lon="-0.07435910601053954"><ele>369.66666666666663</ele><time>2026-04-01T08:44:20Z</time></trkpt><trkpt lat="43.09932980458244" lon="-0.07409693297256177"><ele>370.0</ele><time>2026-04-01T08:44:21Z</time></trkpt><trkpt lat="43.099431164219595" lon="-0.07382515738678157"><ele>370.0</ele><time>2026-04-01T08:44:22Z</time></trkpt><trkpt lat="43.09955936986842" lon="-0.0735525069765085"><ele>370.0</ele><time>2026-04-01T08:44:23Z</time></trkpt><trkpt lat="43.099702667238816" lon="-0.07329483695709439"><ele>370.3333333333333</ele><time>2026-04-01T08:44:24Z</time></trkpt><trkpt lat="43.099840318044535" lon="-0.07304674353089038"><ele>370.6666666666667</ele><time>2026-04-01T08:44:25Z</time></trkpt><trkpt lat="43.09996275862563" lon="-0.0728004056262796"><ele>371.0</ele><time>2026-04-01T08:44:26Z</time></trkpt><trkpt lat="43.100070000003356" lon="-0.07255216224170034"><ele>369.6666666666667</ele><time>2026-04-01T08:44:27Z</time></trkpt><trkpt lat="43.10016392096359" lon="-0.07231442814761999"><ele>368.3333333333333</ele><time>2026-04-01T08:44:28Z</time></trkpt><trkpt lat="43.10025512429412" lon="-0.07208511614991683"><ele>367.0</ele><time>2026-04-01T08:44:29Z</time></trkpt><trkpt lat="43.10034895997174" lon="-0.07187542853793914"><ele>367.0</ele><time>2026-04-01T08:44:30Z</time></trkpt><trkpt lat="43.100455276469056" lon="-0.07169331828663646"><ele>367.0</ele><time>2026-04-01T08:44:31Z</time></trkpt><trkpt lat="43.10056483049597" lon="-0.07151701696663715"><ele>367.0</ele><time>2026-04-01T08:44:32Z</time></trkpt><trkpt lat="43.10066025240634" lon="-0.0713014684036515"><ele>367.3333333333333</ele><time>2026-04-01T08:44:33Z</time></trkpt><trkpt lat="43.10073766478292" lon="-0.07103572624664244"><ele>367.6666666666667</ele><time>2026-04-01T08:44:34Z</time></trkpt><trkpt lat="43.10078978540462" lon="-0.07078948264377682"><ele>368.0</ele><time>2026-04-01T08:44:35Z</time></trkpt><trkpt lat="43.10083089484856" lon="-0.07051402671979702"><ele>370.5</ele><time>2026-04-01T08:44:36Z</time></trkpt><trkpt lat="43.10089206822515" lon="-0.0701749640793781"><ele>373.0</ele><time>2026-04-01T08:44:37Z</time></trkpt><trkpt lat="43.10092368149672" lon="-0.06988508867353135"><ele>373.3333333333333</ele><time>2026-04-01T08:44:38Z</time></trkpt><trkpt lat="43.1009343544932" lon="-0.06959937244943026"><ele>373.6666666666667</ele><time>2026-04-01T08:44:39Z</time></trkpt><trkpt lat="43.100923044515135" lon="-0.0693104801281762"><ele>374.0</ele><time>2026-04-01T08:44:40Z</time></trkpt><trkpt lat="43.100890601884814" lon="-0.06901134848812873"><ele>376.5</ele><time>2026-04-01T08:44:41Z</time></trkpt><trkpt lat="43.100854723084204" lon="-0.06869701557862094"><ele>379.0</ele><time>2026-04-01T08:44:42Z</time></trkpt><trkpt lat="43.10082488780413" lon="-0.06838701845900205"><ele>378.5</ele><time>2026-04-01T08:44:43Z</time></trkpt><trkpt lat="43.10080337326062" lon="-0.06807234587022426"><ele>378.0</ele><time>2026-04-01T08:44:44Z</time></trkpt><trkpt lat="43.100784360494686" lon="-0.06775845409569611"><ele>378.0</ele><time>2026-04-01T08:44:45Z</time></trkpt><trkpt lat="43.100764916054594" lon="-0.06745450159122397"><ele>378.0</ele><time>2026-04-01T08:44:46Z</time></trkpt><trkpt lat="43.10074379604426" lon="-0.06715200172703435"><ele>378.0</ele><time>2026-04-01T08:44:47Z</time></trkpt><trkpt lat="43.10072268557288" lon="-0.0668510744002254"><ele>375.0</ele><time>2026-04-01T08:44:48Z</time></trkpt><trkpt lat="43.10069842631984" lon="-0.06654793879390859"><ele>372.0</ele><time>2026-04-01T08:44:49Z</time></trkpt><trkpt lat="43.10066955870577" lon="-0.06624665405220563"><ele>369.0</ele><time>2026-04-01T08:44:50Z</time></trkpt><trkpt lat="43.10063391830766" lon="-0.06594991187814166"><ele>368.3333333333333</ele><time>2026-04-01T08:44:51Z</time></trkpt><trkpt lat="43.10059693922382" lon="-0.06565417302067525"><ele>367.66666666666663</ele><time>2026-04-01T08:44:52Z</time></trkpt><trkpt lat="43.10056270002808" lon="-0.06536458990982348"><ele>367.0</ele><time>2026-04-01T08:44:53Z</time></trkpt><trkpt lat="43.100533739061184" lon="-0.06508002105045602"><ele>368.66666666666663</ele><time>2026-04-01T08:44:54Z</time></trkpt><trkpt lat="43.100503952944855" lon="-0.06478759673647416"><ele>370.3333333333333</ele><time>2026-04-01T08:44:55Z</time></trkpt><trkpt lat="43.10047337472123" lon="-0.06449846493810561"><ele>372.0</ele><time>2026-04-01T08:44:56Z</time></trkpt><trkpt lat="43.10044777473871" lon="-0.06421431854650458"><ele>372.3333333333333</ele><time>2026-04-01T08:44:57Z</time></trkpt><trkpt lat="43.100426548536895" lon="-0.06392349839846465"><ele>372.66666666666663</ele><time>2026-04-01T08:44:58Z</time></trkpt><trkpt lat="43.10040527718812" lon="-0.0636420903052018"><ele>373.0</ele><time>2026-04-01T08:44:59Z</time></trkpt><trkpt lat="43.100382236696035" lon="-0.06337149934637158"><ele>373.3333333333333</ele><time>2026-04-01T08:45:00Z</time></trkpt><trkpt lat="43.10035697209461" lon="-0.06311965326745315"><ele>373.6666666666667</ele><time>2026-04-01T08:45:01Z</time></trkpt><trkpt lat="43.10033138189472" lon="-0.0628718072264239"><ele>374.0</ele><time>2026-04-01T08:45:02Z</time></trkpt><trkpt lat="43.100307526509404" lon="-0.06262452127396077"><ele>375.5</ele><time>2026-04-01T08:45:03Z</time></trkpt><trkpt lat="43.10028589717136" lon="-0.062401283984648004"><ele>377.0</ele><time>2026-04-01T08:45:04Z</time></trkpt><trkpt lat="43.10026520138282" lon="-0.06220184413621048"><ele>378.5</ele><time>2026-04-01T08:45:05Z</time></trkpt><trkpt lat="43.10024985750195" lon="-0.06201920826034249"><ele>380.0</ele><time>2026-04-01T08:45:06Z</time></trkpt><trkpt lat="43.10023030429248" lon="-0.06183982920968558"><ele>380.0</ele><time>2026-04-01T08:45:07Z</time></trkpt><trkpt lat="43.10021538646181" lon="-0.06166343612893452"><ele>380.0</ele><time>2026-04-01T08:45:08Z</time></trkpt><trkpt lat="43.10020084387301" lon="-0.06146586675026537"><ele>380.0</ele><time>2026-04-01T08:45:09Z</time></trkpt><trkpt lat="43.10018459133676" lon="-0.06127221989368544"><ele>380.0</ele><time>2026-04-01T08:45:10Z</time></trkpt><trkpt lat="43.10017053429591" lon="-0.061089828768913036"><ele>380.6</ele><time>2026-04-01T08:45:11Z</time></trkpt><trkpt lat="43.10015666500553" lon="-0.06092761903181819"><ele>381.2</ele><time>2026-04-01T08:45:12Z</time></trkpt><trkpt lat="43.100145238268375" lon="-0.06078800739044593"><ele>381.79999999999995</ele><time>2026-04-01T08:45:13Z</time></trkpt><trkpt lat="43.100132000403605" lon="-0.06065142544252192"><ele>382.4</ele><time>2026-04-01T08:45:14Z</time></trkpt><trkpt lat="43.1001165341571" lon="-0.060520153588690916"><ele>383.0</ele><time>2026-04-01T08:45:15Z</time></trkpt><trkpt lat="43.100104339021534" lon="-0.06038071994970868"><ele>383.4</ele><time>2026-04-01T08:45:16Z</time></trkpt><trkpt lat="43.1000923487013" lon="-0.06023428389764811"><ele>383.79999999999995</ele><time>2026-04-01T08:45:17Z</time></trkpt><trkpt lat="43.10007834760012" lon="-0.06008570339700807"><ele>384.2</ele><time>2026-04-01T08:45:18Z</time></trkpt><trkpt lat="43.100064997522054" lon="-0.059931999292686874"><ele>384.6</ele><time>2026-04-01T08:45:19Z</time></trkpt><trkpt lat="43.10005232019283" lon="-0.05978110139798215"><ele>385.0</ele><time>2026-04-01T08:45:20Z</time></trkpt><trkpt lat="43.100041940325475" lon="-0.05963501911907647"><ele>385.2</ele><time>2026-04-01T08:45:21Z</time></trkpt><trkpt lat="43.10002956815137" lon="-0.05950382345164969"><ele>385.4</ele><time>2026-04-01T08:45:22Z</time></trkpt><trkpt lat="43.100016061704274" lon="-0.05937802555439578"><ele>385.6</ele><time>2026-04-01T08:45:23Z</time></trkpt><trkpt lat="43.10000886667509" lon="-0.059258236948143424"><ele>385.8</ele><time>2026-04-01T08:45:24Z</time></trkpt><trkpt lat="43.09999201054631" lon="-0.05913810893383327"><ele>386.0</ele><time>2026-04-01T08:45:25Z</time></trkpt><trkpt lat="43.09997959706466" lon="-0.05900178046732028"><ele>386.5</ele><time>2026-04-01T08:45:26Z</time></trkpt><trkpt lat="43.099965956253904" lon="-0.058851973140962695"><ele>387.0</ele><time>2026-04-01T08:45:27Z</time></trkpt><trkpt lat="43.09995075633029" lon="-0.05868504314507944"><ele>387.5</ele><time>2026-04-01T08:45:28Z</time></trkpt><trkpt lat="43.099947624435266" lon="-0.05850534879345098"><ele>388.0</ele><time>2026-04-01T08:45:29Z</time></trkpt><trkpt lat="43.09991683159071" lon="-0.05833063529998229"><ele>386.0</ele><time>2026-04-01T08:45:30Z</time></trkpt><trkpt lat="43.099901611172314" lon="-0.058140786814145036"><ele>384.0</ele><time>2026-04-01T08:45:31Z</time></trkpt><trkpt lat="43.099892715548336" lon="-0.057944901506923926"><ele>382.0</ele><time>2026-04-01T08:45:32Z</time></trkpt><trkpt lat="43.099878289075534" lon="-0.05775186752998665"><ele>380.0</ele><time>2026-04-01T08:45:33Z</time></trkpt><trkpt lat="43.099857657909766" lon="-0.057565827646094234"><ele>379.5</ele><time>2026-04-01T08:45:34Z</time></trkpt><trkpt lat="43.09984212530315" lon="-0.05739239468730254"><ele>379.0</ele><time>2026-04-01T08:45:35Z</time></trkpt><trkpt lat="43.09983389651389" lon="-0.05722641363954715"><ele>378.5</ele><time>2026-04-01T08:45:36Z</time></trkpt><trkpt lat="43.09981983900638" lon="-0.0570623570990941"><ele>378.0</ele><time>2026-04-01T08:45:37Z</time></trkpt><trkpt lat="43.09980472751475" lon="-0.05688958513776329"><ele>378.0</ele><time>2026-04-01T08:45:38Z</time></trkpt><trkpt lat="43.09978244872689" lon="-0.05671502537522639"><ele>378.0</ele><time>2026-04-01T08:45:39Z</time></trkpt><trkpt lat="43.09976708812999" lon="-0.056514022104028075"><ele>378.0</ele><time>2026-04-01T08:45:40Z</time></trkpt><trkpt lat="43.09974877618842" lon="-0.056322367565093644"><ele>378.0</ele><time>2026-04-01T08:45:41Z</time></trkpt><trkpt lat="43.09973480109115" lon="-0.0561330308075296"><ele>378.25</ele><time>2026-04-01T08:45:42Z</time></trkpt><trkpt lat="43.099720455917485" lon="-0.055940706463001165"><ele>378.5</ele><time>2026-04-01T08:45:43Z</time></trkpt><trkpt lat="43.09968727792388" lon="-0.055750480515642686"><ele>378.75</ele><time>2026-04-01T08:45:44Z</time></trkpt><trkpt lat="43.0996849988609" lon="-0.055547786782218715"><ele>379.0</ele><time>2026-04-01T08:45:45Z</time></trkpt><trkpt lat="43.0996652947729" lon="-0.05535099743928794"><ele>380.25</ele><time>2026-04-01T08:45:46Z</time></trkpt><trkpt lat="43.099647002098365" lon="-0.05515774379959546"><ele>381.5</ele><time>2026-04-01T08:45:47Z</time></trkpt><trkpt lat="43.099625557337966" lon="-0.05497354431819318"><ele>382.75</ele><time>2026-04-01T08:45:48Z</time></trkpt><trkpt lat="43.09960382379736" lon="-0.05479749214451639"><ele>384.0</ele><time>2026-04-01T08:45:49Z</time></trkpt><trkpt lat="43.0995862074346" lon="-0.05462373899771199"><ele>385.0</ele><time>2026-04-01T08:45:50Z</time></trkpt><trkpt lat="43.09957417656248" lon="-0.05445596824568711"><ele>386.0</ele><time>2026-04-01T08:45:51Z</time></trkpt><trkpt lat="43.099562858156055" lon="-0.05429732418403558"><ele>387.0</ele><time>2026-04-01T08:45:52Z</time></trkpt><trkpt lat="43.099554748441335" lon="-0.054142792857445755"><ele>388.0</ele><time>2026-04-01T08:45:53Z</time></trkpt><trkpt lat="43.0995500909438" lon="-0.05399951707426154"><ele>388.0</ele><time>2026-04-01T08:45:54Z</time></trkpt><trkpt lat="43.09955150820047" lon="-0.05385604908837547"><ele>388.0</ele><time>2026-04-01T08:45:55Z</time></trkpt><trkpt lat="43.099554548016926" lon="-0.05372486108957727"><ele>388.0</ele><time>2026-04-01T08:45:56Z</time></trkpt><trkpt lat="43.09956558992846" lon="-0.05360413953530329"><ele>388.0</ele><time>2026-04-01T08:45:57Z</time></trkpt><trkpt lat="43.099583566477996" lon="-0.053500910607755775"><ele>388.0</ele><time>2026-04-01T08:45:58Z</time></trkpt><trkpt lat="43.09960692308898" lon="-0.053375949174242834"><ele>387.1666666666667</ele><time>2026-04-01T08:45:59Z</time></trkpt><trkpt lat="43.09963007247263" lon="-0.05327006755176923"><ele>386.33333333333337</ele><time>2026-04-01T08:46:00Z</time></trkpt><trkpt lat="43.09965064933717" lon="-0.0531648933976629"><ele>385.5</ele><time>2026-04-01T08:46:01Z</time></trkpt><trkpt lat="43.09966946692287" lon="-0.05307712747413476"><ele>384.6666666666667</ele><time>2026-04-01T08:46:02Z</time></trkpt><trkpt lat="43.09969167932592" lon="-0.05296704784222652"><ele>383.83333333333337</ele><time>2026-04-01T08:46:04Z</time></trkpt><trkpt lat="43.09971136009414" lon="-0.052860783299614876"><ele>383.0</ele><time>2026-04-01T08:46:06Z</time></trkpt><trkpt lat="43.09973906602565" lon="-0.052704801312619946"><ele>383.0</ele><time>2026-04-01T08:46:08Z</time></trkpt><trkpt lat="43.09975078505474" lon="-0.0525409354177637"><ele>383.0</ele><time>2026-04-01T08:46:10Z</time></trkpt><trkpt lat="43.099728386946246" lon="-0.052444747422669025"><ele>383.0</ele><time>2026-04-01T08:46:11Z</time></trkpt><trkpt lat="43.09971809422341" lon="-0.05234007706589336"><ele>383.0</ele><time>2026-04-01T08:46:12Z</time></trkpt><trkpt lat="43.099708235727284" lon="-0.0522398225107445"><ele>383.0</ele><time>2026-04-01T08:46:13Z</time></trkpt><trkpt lat="43.09969934723997" lon="-0.052149432324043635"><ele>383.0</ele><time>2026-04-01T08:46:14Z</time></trkpt><trkpt lat="43.09970168826764" lon="-0.05205967244970243"><ele>383.75</ele><time>2026-04-01T08:46:15Z</time></trkpt><trkpt lat="43.09966000969414" lon="-0.05193217514431301"><ele>384.5</ele><time>2026-04-01T08:46:17Z</time></trkpt><trkpt lat="43.09960859405329" lon="-0.05176494821018694"><ele>385.25</ele><time>2026-04-01T08:46:19Z</time></trkpt><trkpt lat="43.099567521514125" lon="-0.05163263140699493"><ele>386.0</ele><time>2026-04-01T08:46:21Z</time></trkpt><trkpt lat="43.09952117128689" lon="-0.051489279989785315"><ele>387.28571428571433</ele><time>2026-04-01T08:46:23Z</time></trkpt><trkpt lat="43.0994919330977" lon="-0.051399281186247585"><ele>388.57142857142856</ele><time>2026-04-01T08:46:24Z</time></trkpt><trkpt lat="43.09946093355267" lon="-0.051302999241465405"><ele>389.8571428571429</ele><time>2026-04-01T08:46:25Z</time></trkpt><trkpt lat="43.099430270853766" lon="-0.0512071582292857"><ele>391.14285714285717</ele><time>2026-04-01T08:46:26Z</time></trkpt><trkpt lat="43.09940453439348" lon="-0.0511267149540371"><ele>392.42857142857144</ele><time>2026-04-01T08:46:27Z</time></trkpt><trkpt lat="43.09937577235072" lon="-0.051033798545273"><ele>393.7142857142857</ele><time>2026-04-01T08:46:28Z</time></trkpt><trkpt lat="43.09934651479489" lon="-0.050934718117693824"><ele>395.0</ele><time>2026-04-01T08:46:29Z</time></trkpt><trkpt lat="43.099318154160045" lon="-0.05083339530047586"><ele>396.66666666666663</ele><time>2026-04-01T08:46:30Z</time></trkpt><trkpt lat="43.09930456058704" lon="-0.050724723002867116"><ele>398.3333333333333</ele><time>2026-04-01T08:46:31Z</time></trkpt><trkpt lat="43.09927753712679" lon="-0.05064161874834381"><ele>400.0</ele><time>2026-04-01T08:46:32Z</time></trkpt><trkpt lat="43.09924938643049" lon="-0.05056005518587139"><ele>401.66666666666663</ele><time>2026-04-01T08:46:33Z</time></trkpt><trkpt lat="43.099193668815836" lon="-0.050403614455096724"><ele>403.3333333333333</ele><time>2026-04-01T08:46:35Z</time></trkpt><trkpt lat="43.0991701593301" lon="-0.050313535037580126"><ele>405.0</ele><time>2026-04-01T08:46:36Z</time></trkpt><trkpt lat="43.099154374457186" lon="-0.05019482058013227"><ele>405.0</ele><time>2026-04-01T08:46:37Z</time></trkpt><trkpt lat="43.09912562725431" lon="-0.05007216190899755"><ele>405.0</ele><time>2026-04-01T08:46:38Z</time></trkpt><trkpt lat="43.09909190101147" lon="-0.04994758723357148"><ele>405.0</ele><time>2026-04-01T08:46:39Z</time></trkpt><trkpt lat="43.09906979142934" lon="-0.049850951819267596"><ele>405.0</ele><time>2026-04-01T08:46:40Z</time></trkpt><trkpt lat="43.09904521968059" lon="-0.049764524588717295"><ele>405.0</ele><time>2026-04-01T08:46:41Z</time></trkpt><trkpt lat="43.09900781749767" lon="-0.04961815556897067"><ele>405.0</ele><time>2026-04-01T08:46:43Z</time></trkpt><trkpt lat="43.09898694262508" lon="-0.04952251810965504"><ele>404.1428571428571</ele><time>2026-04-01T08:46:44Z</time></trkpt><trkpt lat="43.09895946668128" lon="-0.04942130672865348"><ele>403.2857142857143</ele><time>2026-04-01T08:46:45Z</time></trkpt><trkpt lat="43.09893872697607" lon="-0.04933865161801932"><ele>402.42857142857144</ele><time>2026-04-01T08:46:46Z</time></trkpt><trkpt lat="43.09891835639867" lon="-0.0492560488782574"><ele>401.57142857142856</ele><time>2026-04-01T08:46:47Z</time></trkpt><trkpt lat="43.09889835959132" lon="-0.04916813488221122"><ele>400.7142857142857</ele><time>2026-04-01T08:46:48Z</time></trkpt><trkpt lat="43.098875504155366" lon="-0.04908024638215353"><ele>399.85714285714283</ele><time>2026-04-01T08:46:49Z</time></trkpt><trkpt lat="43.09885563234276" lon="-0.04899451014841955"><ele>399.0</ele><time>2026-04-01T08:46:50Z</time></trkpt><trkpt lat="43.098820063866825" lon="-0.048840305857057204"><ele>399.0</ele><time>2026-04-01T08:46:52Z</time></trkpt><trkpt lat="43.09877886158025" lon="-0.04876590627743676"><ele>399.0</ele><time>2026-04-01T08:46:53Z</time></trkpt><trkpt lat="43.09877971498501" lon="-0.048667758498685355"><ele>399.0</ele><time>2026-04-01T08:46:54Z</time></trkpt><trkpt lat="43.09873650640271" lon="-0.048501260298691805"><ele>399.0</ele><time>2026-04-01T08:46:56Z</time></trkpt><trkpt lat="43.098710519520516" lon="-0.048403000949928804"><ele>399.0</ele><time>2026-04-01T08:46:57Z</time></trkpt><trkpt lat="43.098662514479244" lon="-0.048304059364535384"><ele>399.0</ele><time>2026-04-01T08:46:58Z</time></trkpt><trkpt lat="43.09863610289601" lon="-0.048187945027643876"><ele>399.2</ele><time>2026-04-01T08:46:59Z</time></trkpt><trkpt lat="43.09861022976904" lon="-0.048078911421329085"><ele>399.4</ele><time>2026-04-01T08:47:00Z</time></trkpt><trkpt lat="43.098582655130336" lon="-0.04797024483798536"><ele>399.6</ele><time>2026-04-01T08:47:01Z</time></trkpt><trkpt lat="43.09856602029069" lon="-0.04783504594656837"><ele>399.8</ele><time>2026-04-01T08:47:02Z</time></trkpt><trkpt lat="43.09853495481973" lon="-0.047707416447933505"><ele>400.0</ele><time>2026-04-01T08:47:03Z</time></trkpt><trkpt lat="43.098505837961014" lon="-0.047579237146622703"><ele>400.00000000000006</ele><time>2026-04-01T08:47:04Z</time></trkpt><trkpt lat="43.09848132233969" lon="-0.047467733164055975"><ele>400.0</ele><time>2026-04-01T08:47:05Z</time></trkpt><trkpt lat="43.098457322084386" lon="-0.04734918859346428"><ele>400.0</ele><time>2026-04-01T08:47:06Z</time></trkpt><trkpt lat="43.09844100093627" lon="-0.04723081370281771"><ele>400.0</ele><time>2026-04-01T08:47:07Z</time></trkpt><trkpt lat="43.09844192099913" lon="-0.04711941229758186"><ele>400.00000000000006</ele><time>2026-04-01T08:47:08Z</time></trkpt><trkpt lat="43.09846335011661" lon="-0.04702333399732638"><ele>400.0</ele><time>2026-04-01T08:47:09Z</time></trkpt><trkpt lat="43.098500953234634" lon="-0.04694604429875919"><ele>399.83333333333337</ele><time>2026-04-01T08:47:10Z</time></trkpt><trkpt lat="43.098551904883124" lon="-0.04688544608362965"><ele>399.6666666666667</ele><time>2026-04-01T08:47:11Z</time></trkpt><trkpt lat="43.098621458976325" lon="-0.04684058957043302"><ele>399.5</ele><time>2026-04-01T08:47:12Z</time></trkpt><trkpt lat="43.09870103951197" lon="-0.04680695569555343"><ele>399.33333333333337</ele><time>2026-04-01T08:47:13Z</time></trkpt><trkpt lat="43.09878399063013" lon="-0.04677222216087757"><ele>399.1666666666667</ele><time>2026-04-01T08:47:14Z</time></trkpt><trkpt lat="43.09886334153579" lon="-0.04671069880455603"><ele>399.0</ele><time>2026-04-01T08:47:15Z</time></trkpt><trkpt lat="43.09893601325714" lon="-0.04664224149841113"><ele>399.0</ele><time>2026-04-01T08:47:16Z</time></trkpt><trkpt lat="43.09899192388178" lon="-0.04658485046772427"><ele>399.0</ele><time>2026-04-01T08:47:17Z</time></trkpt><trkpt lat="43.09905509633982" lon="-0.04652199979496377"><ele>399.0</ele><time>2026-04-01T08:47:18Z</time></trkpt><trkpt lat="43.0991082651534" lon="-0.046462091133040256"><ele>399.0</ele><time>2026-04-01T08:47:19Z</time></trkpt><trkpt lat="43.099159194085914" lon="-0.04640673461266329"><ele>399.0</ele><time>2026-04-01T08:47:20Z</time></trkpt><trkpt lat="43.09921087362246" lon="-0.046354641049068425"><ele>399.0</ele><time>2026-04-01T08:47:21Z</time></trkpt><trkpt lat="43.09930767131571" lon="-0.046264292329699044"><ele>399.6</ele><time>2026-04-01T08:47:23Z</time></trkpt><trkpt lat="43.09938291798" lon="-0.04619620321043402"><ele>400.2</ele><time>2026-04-01T08:47:25Z</time></trkpt><trkpt lat="43.0994381528285" lon="-0.0461213809236284"><ele>400.8</ele><time>2026-04-01T08:47:27Z</time></trkpt><trkpt lat="43.099427648599566" lon="-0.04599081991592875"><ele>401.40000000000003</ele><time>2026-04-01T08:47:29Z</time></trkpt><trkpt lat="43.09944269971342" lon="-0.04582388134937414"><ele>402.0</ele><time>2026-04-01T08:47:31Z</time></trkpt><trkpt lat="43.099438758257946" lon="-0.04572140581721246"><ele>402.0</ele><time>2026-04-01T08:47:32Z</time></trkpt><trkpt lat="43.0994373545628" lon="-0.04560745081152192"><ele>402.0</ele><time>2026-04-01T08:47:34Z</time></trkpt><trkpt lat="43.09942329797648" lon="-0.04550213493752687"><ele>402.0</ele><time>2026-04-01T08:47:41Z</time></trkpt><trkpt lat="43.09938794794496" lon="-0.0453833705532559"><ele>402.0</ele><time>2026-04-01T08:47:47Z</time></trkpt><trkpt lat="43.099281017655564" lon="-0.04534110586421723"><ele>402.0</ele><time>2026-04-01T08:47:49Z</time></trkpt><trkpt lat="43.0991946694959" lon="-0.04534825716230942"><ele>402.0</ele><time>2026-04-01T08:47:51Z</time></trkpt><trkpt lat="43.09913046869684" lon="-0.045381147515157316"><ele>402.0</ele><time>2026-04-01T08:47:53Z</time></trkpt><trkpt lat="43.09903763581258" lon="-0.04540566995714838"><ele>402.0</ele><time>2026-04-01T08:47:55Z</time></trkpt><trkpt lat="43.09894578050198" lon="-0.04542995442268777"><ele>402.0</ele><time>2026-04-01T08:47:57Z</time></trkpt><trkpt lat="43.098850047565726" lon="-0.045453114902966676"><ele>402.0</ele><time>2026-04-01T08:48:00Z</time></trkpt><trkpt lat="43.09877836156904" lon="-0.04547029969948672"><ele>402.0</ele><time>2026-04-01T08:48:03Z</time></trkpt><trkpt lat="43.09870460226685" lon="-0.04548791092285956"><ele>401.20000000000005</ele><time>2026-04-01T08:48:08Z</time></trkpt><trkpt lat="43.09862155105004" lon="-0.04550811549545646"><ele>400.4</ele><time>2026-04-01T08:48:10Z</time></trkpt><trkpt lat="43.09853318839825" lon="-0.045529578638566645"><ele>399.6</ele><time>2026-04-01T08:48:12Z</time></trkpt><trkpt lat="43.09844432347741" lon="-0.04555116381844738"><ele>398.79999999999995</ele><time>2026-04-01T08:48:14Z</time></trkpt><trkpt lat="43.09834982636198" lon="-0.0455756552964446"><ele>398.0</ele><time>2026-04-01T08:48:16Z</time></trkpt><trkpt lat="43.09825368280876" lon="-0.045600013569833626"><ele>399.0</ele><time>2026-04-01T08:48:18Z</time></trkpt><trkpt lat="43.0981589714529" lon="-0.045623987188326366"><ele>400.0</ele><time>2026-04-01T08:48:20Z</time></trkpt><trkpt lat="43.09805054713606" lon="-0.04565328603839149"><ele>401.0</ele><time>2026-04-01T08:48:22Z</time></trkpt><trkpt lat="43.09792210480431" lon="-0.045686718172639126"><ele>402.0</ele><time>2026-04-01T08:48:24Z</time></trkpt><trkpt lat="43.097849408026306" lon="-0.045704641882953506"><ele>403.0</ele><time>2026-04-01T08:48:25Z</time></trkpt><trkpt lat="43.097772603445506" lon="-0.04572357838778404"><ele>403.00000000000006</ele><time>2026-04-01T08:48:26Z</time></trkpt><trkpt lat="43.09769026694475" lon="-0.04568750480554516"><ele>403.0</ele><time>2026-04-01T08:48:27Z</time></trkpt><trkpt lat="43.097623217207506" lon="-0.0457068326881563"><ele>403.0</ele><time>2026-04-01T08:48:28Z</time></trkpt><trkpt lat="43.097547030628576" lon="-0.04572650989837249"><ele>403.0</ele><time>2026-04-01T08:48:29Z</time></trkpt><trkpt lat="43.097471010699856" lon="-0.045748513944129154"><ele>403.00000000000006</ele><time>2026-04-01T08:48:30Z</time></trkpt><trkpt lat="43.09740710885457" lon="-0.04581310461444108"><ele>403.0</ele><time>2026-04-01T08:48:31Z</time></trkpt><trkpt lat="43.097292993136044" lon="-0.04584095658222512"><ele>403.4</ele><time>2026-04-01T08:48:33Z</time></trkpt><trkpt lat="43.097180174220085" lon="-0.045868276828542914"><ele>403.79999999999995</ele><time>2026-04-01T08:48:35Z</time></trkpt><trkpt lat="43.09707030450555" lon="-0.04589470822008649"><ele>404.2</ele><time>2026-04-01T08:48:37Z</time></trkpt><trkpt lat="43.096973885430245" lon="-0.04591965428763061"><ele>404.6</ele><time>2026-04-01T08:48:39Z</time></trkpt><trkpt lat="43.09689938256618" lon="-0.04594382284827298"><ele>405.0</ele><time>2026-04-01T08:48:41Z</time></trkpt><trkpt lat="43.09677916131674" lon="-0.04599037093038188"><ele>405.0</ele><time>2026-04-01T08:48:43Z</time></trkpt><trkpt lat="43.09668279982201" lon="-0.046022626081865727"><ele>405.0</ele><time>2026-04-01T08:48:44Z</time></trkpt><trkpt lat="43.09659181540156" lon="-0.04602257839998588"><ele>405.0</ele><time>2026-04-01T08:48:45Z</time></trkpt><trkpt lat="43.09651928233912" lon="-0.04606474849377181"><ele>405.0</ele><time>2026-04-01T08:48:46Z</time></trkpt><trkpt lat="43.09644289407816" lon="-0.0460849639508929"><ele>405.0</ele><time>2026-04-01T08:48:47Z</time></trkpt><trkpt lat="43.09637116446442" lon="-0.04610398159892851"><ele>405.0</ele><time>2026-04-01T08:48:48Z</time></trkpt><trkpt lat="43.09630156535746" lon="-0.04612243438913719"><ele>405.3333333333333</ele><time>2026-04-01T08:48:49Z</time></trkpt><trkpt lat="43.09621428506193" lon="-0.04614766046364018"><ele>405.66666666666663</ele><time>2026-04-01T08:48:51Z</time></trkpt><trkpt lat="43.09614805337389" lon="-0.04617113276497926"><ele>406.0</ele><time>2026-04-01T08:48:53Z</time></trkpt><trkpt lat="43.096070771317954" lon="-0.046210440558329194"><ele>406.3333333333333</ele><time>2026-04-01T08:49:28Z</time></trkpt><trkpt lat="43.09600450407275" lon="-0.04624446218930798"><ele>406.66666666666663</ele><time>2026-04-01T08:49:29Z</time></trkpt><trkpt lat="43.09593392061406" lon="-0.04628314939652195"><ele>407.0</ele><time>2026-04-01T08:49:30Z</time></trkpt><trkpt lat="43.09584310947933" lon="-0.04629827389230858"><ele>407.0</ele><time>2026-04-01T08:49:31Z</time></trkpt><trkpt lat="43.09575512820891" lon="-0.04632705543409875"><ele>407.0</ele><time>2026-04-01T08:49:32Z</time></trkpt><trkpt lat="43.09565729592472" lon="-0.04633985188279281"><ele>407.0</ele><time>2026-04-01T08:49:33Z</time></trkpt><trkpt lat="43.09555495025479" lon="-0.046343741970036496"><ele>407.0</ele><time>2026-04-01T08:49:34Z</time></trkpt><trkpt lat="43.0954485680733" lon="-0.04634059192733123"><ele>407.0</ele><time>2026-04-01T08:49:35Z</time></trkpt><trkpt lat="43.09535413452253" lon="-0.04632814691081422"><ele>406.99999999999994</ele><time>2026-04-01T08:49:36Z</time></trkpt><trkpt lat="43.09527519957821" lon="-0.046309349290610057"><ele>407.0</ele><time>2026-04-01T08:49:37Z</time></trkpt><trkpt lat="43.09519669768323" lon="-0.04627927580788861"><ele>407.0</ele><time>2026-04-01T08:49:38Z</time></trkpt><trkpt lat="43.095128794483486" lon="-0.04625859392705667"><ele>407.0</ele><time>2026-04-01T08:49:39Z</time></trkpt><trkpt lat="43.095063711533015" lon="-0.046234667303782666"><ele>406.99999999999994</ele><time>2026-04-01T08:49:40Z</time></trkpt><trkpt lat="43.094949213550464" lon="-0.046186923460738626"><ele>407.0</ele><time>2026-04-01T08:49:42Z</time></trkpt><trkpt lat="43.094865673595855" lon="-0.046146508311017395"><ele>406.99999999999994</ele><time>2026-04-01T08:49:44Z</time></trkpt><trkpt lat="43.09478751115806" lon="-0.046125016328073976"><ele>407.0</ele><time>2026-04-01T08:49:47Z</time></trkpt><trkpt lat="43.094701166832124" lon="-0.0461121410786523"><ele>407.0</ele><time>2026-04-01T08:49:51Z</time></trkpt><trkpt lat="43.094636649676275" lon="-0.04611430142546328"><ele>407.0</ele><time>2026-04-01T08:49:54Z</time></trkpt><trkpt lat="43.094570650405934" lon="-0.04611007065899986"><ele>406.99999999999994</ele><time>2026-04-01T08:49:58Z</time></trkpt><trkpt lat="43.094494150132945" lon="-0.04613349610614063"><ele>407.0</ele><time>2026-04-01T08:50:00Z</time></trkpt><trkpt lat="43.09438143859914" lon="-0.046141622182171514"><ele>406.99999999999994</ele><time>2026-04-01T08:50:02Z</time></trkpt><trkpt lat="43.09430622127344" lon="-0.04615673009049299"><ele>407.0</ele><time>2026-04-01T08:50:04Z</time></trkpt><trkpt lat="43.09424176035257" lon="-0.04616431486683071"><ele>407.0</ele><time>2026-04-01T08:50:08Z</time></trkpt><trkpt lat="43.09414553833738" lon="-0.04619745075931494"><ele>407.0</ele><time>2026-04-01T08:50:11Z</time></trkpt><trkpt lat="43.09407829974675" lon="-0.046220535488291116"><ele>406.99999999999994</ele><time>2026-04-01T08:50:14Z</time></trkpt><trkpt lat="43.09399594687221" lon="-0.04623528521269043"><ele>407.0</ele><time>2026-04-01T08:50:18Z</time></trkpt><trkpt lat="43.0939292784063" lon="-0.046247965290497316"><ele>406.49999999999994</ele><time>2026-04-01T08:50:19Z</time></trkpt><trkpt lat="43.093847919985926" lon="-0.0462494203549177"><ele>406.0</ele><time>2026-04-01T08:50:20Z</time></trkpt><trkpt lat="43.09377710388026" lon="-0.04625308276709271"><ele>405.5</ele><time>2026-04-01T08:50:21Z</time></trkpt><trkpt lat="43.09367954675518" lon="-0.046252981612682396"><ele>405.0</ele><time>2026-04-01T08:50:23Z</time></trkpt><trkpt lat="43.093614448055746" lon="-0.04623840573584863"><ele>404.49999999999994</ele><time>2026-04-01T08:50:51Z</time></trkpt><trkpt lat="43.09350387226969" lon="-0.04624064762913556"><ele>404.0</ele><time>2026-04-01T08:50:53Z</time></trkpt><trkpt lat="43.09342554428936" lon="-0.04624309002660407"><ele>404.0</ele><time>2026-04-01T08:50:54Z</time></trkpt><trkpt lat="43.09333144332176" lon="-0.04623275747885841"><ele>404.0</ele><time>2026-04-01T08:50:55Z</time></trkpt><trkpt lat="43.0932322300834" lon="-0.04622350721764996"><ele>404.0</ele><time>2026-04-01T08:50:56Z</time></trkpt><trkpt lat="43.09313654418459" lon="-0.04623853055954192"><ele>404.0</ele><time>2026-04-01T08:50:57Z</time></trkpt><trkpt lat="43.09303770527521" lon="-0.04623481647842748"><ele>404.0</ele><time>2026-04-01T08:50:58Z</time></trkpt><trkpt lat="43.09292967786035" lon="-0.04623072107173798"><ele>404.5</ele><time>2026-04-01T08:50:59Z</time></trkpt><trkpt lat="43.09280604933881" lon="-0.04622786884087711"><ele>405.0</ele><time>2026-04-01T08:51:00Z</time></trkpt><trkpt lat="43.092680913551476" lon="-0.04622428447510691"><ele>405.5</ele><time>2026-04-01T08:51:01Z</time></trkpt><trkpt lat="43.092563871891976" lon="-0.04622093195869746"><ele>406.0</ele><time>2026-04-01T08:51:02Z</time></trkpt><trkpt lat="43.09246447262502" lon="-0.04621808478517775"><ele>406.4</ele><time>2026-04-01T08:51:03Z</time></trkpt><trkpt lat="43.09236992294603" lon="-0.0462160210761327"><ele>406.8</ele><time>2026-04-01T08:51:04Z</time></trkpt><trkpt lat="43.092276844986074" lon="-0.04621374865974536"><ele>407.2</ele><time>2026-04-01T08:51:05Z</time></trkpt><trkpt lat="43.09218214609399" lon="-0.04621096746433847"><ele>407.59999999999997</ele><time>2026-04-01T08:51:06Z</time></trkpt><trkpt lat="43.09207230652504" lon="-0.04620829834005963"><ele>408.0</ele><time>2026-04-01T08:51:07Z</time></trkpt><trkpt lat="43.09195440126488" lon="-0.04620542290780836"><ele>408.0</ele><time>2026-04-01T08:51:08Z</time></trkpt><trkpt lat="43.091829130516246" lon="-0.046202331216197635"><ele>408.0</ele><time>2026-04-01T08:51:09Z</time></trkpt><trkpt lat="43.091701237959676" lon="-0.046199172455606195"><ele>408.0</ele><time>2026-04-01T08:51:10Z</time></trkpt><trkpt lat="43.0915701351758" lon="-0.046195933085833626"><ele>408.0</ele><time>2026-04-01T08:51:11Z</time></trkpt><trkpt lat="43.09143741140975" lon="-0.04619329775153577"><ele>407.75</ele><time>2026-04-01T08:51:12Z</time></trkpt><trkpt lat="43.09130134784788" lon="-0.04619059913524749"><ele>407.5</ele><time>2026-04-01T08:51:13Z</time></trkpt><trkpt lat="43.09116613027785" lon="-0.04618791729764398"><ele>407.25</ele><time>2026-04-01T08:51:14Z</time></trkpt><trkpt lat="43.09103565284486" lon="-0.04618418874581904"><ele>407.0</ele><time>2026-04-01T08:51:15Z</time></trkpt><trkpt lat="43.09090766818547" lon="-0.04615820708948956"><ele>407.0</ele><time>2026-04-01T08:51:16Z</time></trkpt><trkpt lat="43.0907784997318" lon="-0.046176750179413834"><ele>407.0</ele><time>2026-04-01T08:51:17Z</time></trkpt><trkpt lat="43.09065008683427" lon="-0.04617345713644949"><ele>407.0</ele><time>2026-04-01T08:51:18Z</time></trkpt><trkpt lat="43.09051909667495" lon="-0.04617026372130696"><ele>407.0</ele><time>2026-04-01T08:51:19Z</time></trkpt><trkpt lat="43.09038709143442" lon="-0.046166990035145836"><ele>406.5</ele><time>2026-04-01T08:51:20Z</time></trkpt><trkpt lat="43.090254298061744" lon="-0.04616369934730127"><ele>406.0</ele><time>2026-04-01T08:51:21Z</time></trkpt><trkpt lat="43.090120942506346" lon="-0.04616039472864495"><ele>405.5</ele><time>2026-04-01T08:51:22Z</time></trkpt><trkpt lat="43.08999073777755" lon="-0.04615716819053936"><ele>405.0</ele><time>2026-04-01T08:51:23Z</time></trkpt><trkpt lat="43.08986269695156" lon="-0.04615399527432072"><ele>405.0</ele><time>2026-04-01T08:51:24Z</time></trkpt><trkpt lat="43.08974011796978" lon="-0.04615088086521153"><ele>405.0</ele><time>2026-04-01T08:51:25Z</time></trkpt><trkpt lat="43.08961271389068" lon="-0.04614892108460234"><ele>405.0</ele><time>2026-04-01T08:51:26Z</time></trkpt><trkpt lat="43.08948306476109" lon="-0.04613408645297339"><ele>405.0</ele><time>2026-04-01T08:51:27Z</time></trkpt><trkpt lat="43.089353788126175" lon="-0.04612633705019364"><ele>405.0</ele><time>2026-04-01T08:51:28Z</time></trkpt><trkpt lat="43.089228577434724" lon="-0.04614762108744556"><ele>405.0</ele><time>2026-04-01T08:51:29Z</time></trkpt><trkpt lat="43.089090360037225" lon="-0.04614625500507441"><ele>405.0</ele><time>2026-04-01T08:51:30Z</time></trkpt><trkpt lat="43.088956933690135" lon="-0.04614353066069773"><ele>405.0</ele><time>2026-04-01T08:51:31Z</time></trkpt><trkpt lat="43.08882722893741" lon="-0.04613983868878348"><ele>405.25</ele><time>2026-04-01T08:51:32Z</time></trkpt><trkpt lat="43.088710370315226" lon="-0.04613650704132082"><ele>405.5</ele><time>2026-04-01T08:51:33Z</time></trkpt><trkpt lat="43.08859858501722" lon="-0.0461333200887251"><ele>405.75</ele><time>2026-04-01T08:51:34Z</time></trkpt><trkpt lat="43.08847918018518" lon="-0.04613058669083109"><ele>406.0</ele><time>2026-04-01T08:51:35Z</time></trkpt><trkpt lat="43.08835145708686" lon="-0.04612752462944511"><ele>406.5</ele><time>2026-04-01T08:51:36Z</time></trkpt><trkpt lat="43.08822048205304" lon="-0.046124386657014724"><ele>407.0</ele><time>2026-04-01T08:51:37Z</time></trkpt><trkpt lat="43.088084031889004" lon="-0.04612111751707046"><ele>407.5</ele><time>2026-04-01T08:51:38Z</time></trkpt><trkpt lat="43.08794582411397" lon="-0.04611780625968217"><ele>408.0</ele><time>2026-04-01T08:51:39Z</time></trkpt><trkpt lat="43.08780686394524" lon="-0.046114767248510866"><ele>408.0</ele><time>2026-04-01T08:51:40Z</time></trkpt><trkpt lat="43.08765782844311" lon="-0.04611165944355342"><ele>408.0</ele><time>2026-04-01T08:51:41Z</time></trkpt><trkpt lat="43.087502755068314" lon="-0.04610821122203682"><ele>408.0</ele><time>2026-04-01T08:51:42Z</time></trkpt><trkpt lat="43.087347995571434" lon="-0.046082608058342946"><ele>407.66666666666663</ele><time>2026-04-01T08:51:43Z</time></trkpt><trkpt lat="43.087184723037375" lon="-0.04607833524715203"><ele>407.3333333333333</ele><time>2026-04-01T08:51:44Z</time></trkpt><trkpt lat="43.087019156151555" lon="-0.046096766747901814"><ele>407.0</ele><time>2026-04-01T08:51:45Z</time></trkpt><trkpt lat="43.086858018203756" lon="-0.04609143084947668"><ele>407.0</ele><time>2026-04-01T08:51:46Z</time></trkpt><trkpt lat="43.08669136246042" lon="-0.046079433939781714"><ele>407.0</ele><time>2026-04-01T08:51:47Z</time></trkpt><trkpt lat="43.08653237107808" lon="-0.046055295234737545"><ele>407.0</ele><time>2026-04-01T08:51:48Z</time></trkpt><trkpt lat="43.08639017896565" lon="-0.045997192564753306"><ele>406.5</ele><time>2026-04-01T08:51:49Z</time></trkpt><trkpt lat="43.08625861966874" lon="-0.045992938856944554"><ele>406.0</ele><time>2026-04-01T08:51:50Z</time></trkpt><trkpt lat="43.08613853332364" lon="-0.04597271947334175"><ele>405.5</ele><time>2026-04-01T08:51:51Z</time></trkpt><trkpt lat="43.086013691485526" lon="-0.04594911342834387"><ele>405.0</ele><time>2026-04-01T08:51:52Z</time></trkpt><trkpt lat="43.08588932320163" lon="-0.045925999813977124"><ele>405.0</ele><time>2026-04-01T08:51:53Z</time></trkpt><trkpt lat="43.085771423959486" lon="-0.04590476102698436"><ele>405.0</ele><time>2026-04-01T08:51:54Z</time></trkpt><trkpt lat="43.085676682611314" lon="-0.04588769396752448"><ele>405.0</ele><time>2026-04-01T08:51:55Z</time></trkpt><trkpt lat="43.08558002830762" lon="-0.04587028218698901"><ele>405.0</ele><time>2026-04-01T08:51:56Z</time></trkpt><trkpt lat="43.085473028257454" lon="-0.045851069174799225"><ele>405.0</ele><time>2026-04-01T08:51:57Z</time></trkpt><trkpt lat="43.085356161811134" lon="-0.04583006798157413"><ele>406.25</ele><time>2026-04-01T08:51:58Z</time></trkpt><trkpt lat="43.08524413427252" lon="-0.0457947475311673"><ele>407.5</ele><time>2026-04-01T08:51:59Z</time></trkpt><trkpt lat="43.08512974398121" lon="-0.04577751937978062"><ele>408.75</ele><time>2026-04-01T08:52:00Z</time></trkpt><trkpt lat="43.08501444076593" lon="-0.04574743772311643"><ele>410.0</ele><time>2026-04-01T08:52:01Z</time></trkpt><trkpt lat="43.08489432739871" lon="-0.045724431634783104"><ele>410.75</ele><time>2026-04-01T08:52:02Z</time></trkpt><trkpt lat="43.08476551269362" lon="-0.045723456308159105"><ele>411.5</ele><time>2026-04-01T08:52:03Z</time></trkpt><trkpt lat="43.08464578666361" lon="-0.045683428674440314"><ele>412.25</ele><time>2026-04-01T08:52:04Z</time></trkpt><trkpt lat="43.084525619469815" lon="-0.045664195212688434"><ele>413.0</ele><time>2026-04-01T08:52:05Z</time></trkpt><trkpt lat="43.08440296189604" lon="-0.04564516933870432"><ele>413.0</ele><time>2026-04-01T08:52:06Z</time></trkpt><trkpt lat="43.08428135032277" lon="-0.045622694112946074"><ele>413.0</ele><time>2026-04-01T08:52:07Z</time></trkpt><trkpt lat="43.08415937459263" lon="-0.04562072353384742"><ele>413.0</ele><time>2026-04-01T08:52:08Z</time></trkpt><trkpt lat="43.08403368426559" lon="-0.045649431328163174"><ele>413.0</ele><time>2026-04-01T08:52:09Z</time></trkpt><trkpt lat="43.08391671936449" lon="-0.04571453617028172"><ele>412.75</ele><time>2026-04-01T08:52:10Z</time></trkpt><trkpt lat="43.083793989246516" lon="-0.04575387735986594"><ele>412.5</ele><time>2026-04-01T08:52:11Z</time></trkpt><trkpt lat="43.08367615672043" lon="-0.04579214561131749"><ele>412.25</ele><time>2026-04-01T08:52:12Z</time></trkpt><trkpt lat="43.08356311161517" lon="-0.045795561140817995"><ele>412.0</ele><time>2026-04-01T08:52:13Z</time></trkpt><trkpt lat="43.08345122407953" lon="-0.0458084280598633"><ele>412.0</ele><time>2026-04-01T08:52:14Z</time></trkpt><trkpt lat="43.08336019051872" lon="-0.04578076085611745"><ele>412.0</ele><time>2026-04-01T08:52:15Z</time></trkpt><trkpt lat="43.083286205533554" lon="-0.045714863089129094"><ele>412.0</ele><time>2026-04-01T08:52:16Z</time></trkpt><trkpt lat="43.08322919391829" lon="-0.04561899662346632"><ele>412.0</ele><time>2026-04-01T08:52:17Z</time></trkpt><trkpt lat="43.083191492827694" lon="-0.045502914208505066"><ele>412.0</ele><time>2026-04-01T08:52:18Z</time></trkpt><trkpt lat="43.08316264568985" lon="-0.04537936108790856"><ele>411.8</ele><time>2026-04-01T08:52:19Z</time></trkpt><trkpt lat="43.08313075210214" lon="-0.04525425259207256"><ele>411.6</ele><time>2026-04-01T08:52:20Z</time></trkpt><trkpt lat="43.08309584140741" lon="-0.04513466532166523"><ele>411.40000000000003</ele><time>2026-04-01T08:52:21Z</time></trkpt><trkpt lat="43.08306233140181" lon="-0.045021921402668245"><ele>411.20000000000005</ele><time>2026-04-01T08:52:23Z</time></trkpt><trkpt lat="43.082973941974345" lon="-0.044926882736700265"><ele>411.0</ele><time>2026-04-01T08:52:26Z</time></trkpt><trkpt lat="43.08285877845917" lon="-0.04486694314745529"><ele>411.0</ele><time>2026-04-01T08:52:28Z</time></trkpt><trkpt lat="43.08278547350893" lon="-0.04481432463197626"><ele>411.0</ele><time>2026-04-01T08:52:29Z</time></trkpt><trkpt lat="43.08272265854852" lon="-0.04475630212646831"><ele>411.0</ele><time>2026-04-01T08:52:30Z</time></trkpt><trkpt lat="43.08261671936377" lon="-0.04476095759689628"><ele>411.0</ele><time>2026-04-01T08:52:31Z</time></trkpt><trkpt lat="43.08251017266936" lon="-0.04477047110824617"><ele>411.0</ele><time>2026-04-01T08:52:32Z</time></trkpt><trkpt lat="43.08237697977768" lon="-0.04478960442466366"><ele>404.0</ele><time>2026-04-01T08:52:33Z</time></trkpt><trkpt lat="43.08223048934832" lon="-0.04481367476429725"><ele>397.0</ele><time>2026-04-01T08:52:34Z</time></trkpt><trkpt lat="43.08208118455228" lon="-0.04483793594012841"><ele>390.0</ele><time>2026-04-01T08:52:35Z</time></trkpt><trkpt lat="43.081904928340286" lon="-0.0448694344313977"><ele>390.0</ele><time>2026-04-01T08:52:36Z</time></trkpt><trkpt lat="43.081734929788105" lon="-0.044882120407604364"><ele>390.0</ele><time>2026-04-01T08:52:37Z</time></trkpt><trkpt lat="43.081565989861225" lon="-0.044890252003607405"><ele>390.0</ele><time>2026-04-01T08:52:38Z</time></trkpt><trkpt lat="43.081396284614094" lon="-0.04489026962923705"><ele>391.0</ele><time>2026-04-01T08:52:39Z</time></trkpt><trkpt lat="43.081224699321446" lon="-0.044892198341246074"><ele>392.0</ele><time>2026-04-01T08:52:40Z</time></trkpt><trkpt lat="43.08105378657385" lon="-0.04489259439707825"><ele>393.0</ele><time>2026-04-01T08:52:41Z</time></trkpt><trkpt lat="43.08087246656509" lon="-0.04488494097635698"><ele>394.33333333333337</ele><time>2026-04-01T08:52:42Z</time></trkpt><trkpt lat="43.08068465280152" lon="-0.04486764467266198"><ele>395.6666666666667</ele><time>2026-04-01T08:52:43Z</time></trkpt><trkpt lat="43.08048003354919" lon="-0.04484371377750029"><ele>397.0</ele><time>2026-04-01T08:52:44Z</time></trkpt><trkpt lat="43.080266199838356" lon="-0.04481894167730766"><ele>397.0</ele><time>2026-04-01T08:52:45Z</time></trkpt><trkpt lat="43.080056316295845" lon="-0.04478991780535143"><ele>397.0</ele><time>2026-04-01T08:52:46Z</time></trkpt><trkpt lat="43.07983765761029" lon="-0.04474890703681399"><ele>397.0</ele><time>2026-04-01T08:52:47Z</time></trkpt><trkpt lat="43.07961636376954" lon="-0.04469887237329275"><ele>399.5</ele><time>2026-04-01T08:52:48Z</time></trkpt><trkpt lat="43.07939166772169" lon="-0.04464158934950977"><ele>402.0</ele><time>2026-04-01T08:52:49Z</time></trkpt><trkpt lat="43.07916310548324" lon="-0.04458181094366905"><ele>404.5</ele><time>2026-04-01T08:52:50Z</time></trkpt><trkpt lat="43.078933501497836" lon="-0.04451744174884915"><ele>407.0</ele><time>2026-04-01T08:52:51Z</time></trkpt><trkpt lat="43.07870595672491" lon="-0.04444617251570089"><ele>407.0</ele><time>2026-04-01T08:52:52Z</time></trkpt><trkpt lat="43.078480033900256" lon="-0.04436678799480876"><ele>407.0</ele><time>2026-04-01T08:52:53Z</time></trkpt><trkpt lat="43.07825763559516" lon="-0.0442802104861746"><ele>405.5</ele><time>2026-04-01T08:52:54Z</time></trkpt><trkpt lat="43.07803411086661" lon="-0.044188205651797534"><ele>404.0</ele><time>2026-04-01T08:52:55Z</time></trkpt><trkpt lat="43.07781169366232" lon="-0.04409527260449846"><ele>404.0</ele><time>2026-04-01T08:52:56Z</time></trkpt><trkpt lat="43.07758511595063" lon="-0.0440005742374963"><ele>404.0</ele><time>2026-04-01T08:52:57Z</time></trkpt><trkpt lat="43.07736146958526" lon="-0.04390418980573301"><ele>406.0</ele><time>2026-04-01T08:52:58Z</time></trkpt><trkpt lat="43.07713304680744" lon="-0.043809948308697895"><ele>408.0</ele><time>2026-04-01T08:52:59Z</time></trkpt><trkpt lat="43.076900903147056" lon="-0.043715769363702035"><ele>408.0</ele><time>2026-04-01T08:53:00Z</time></trkpt><trkpt lat="43.07666800115163" lon="-0.043620251779547724"><ele>408.0</ele><time>2026-04-01T08:53:01Z</time></trkpt><trkpt lat="43.07644268941242" lon="-0.043522953927439524"><ele>410.5</ele><time>2026-04-01T08:53:02Z</time></trkpt><trkpt lat="43.07621958493854" lon="-0.043426781758244055"><ele>413.0</ele><time>2026-04-01T08:53:03Z</time></trkpt><trkpt lat="43.07599653830259" lon="-0.04333147558779679"><ele>410.3333333333333</ele><time>2026-04-01T08:53:04Z</time></trkpt><trkpt lat="43.07578319616248" lon="-0.04324153326543041"><ele>407.66666666666663</ele><time>2026-04-01T08:53:05Z</time></trkpt><trkpt lat="43.07557484441269" lon="-0.04315499838292672"><ele>405.0</ele><time>2026-04-01T08:53:06Z</time></trkpt><trkpt lat="43.07536792403896" lon="-0.04307145976631348"><ele>405.0</ele><time>2026-04-01T08:53:07Z</time></trkpt><trkpt lat="43.07516201340229" lon="-0.04299455450835448"><ele>405.0</ele><time>2026-04-01T08:53:08Z</time></trkpt><trkpt lat="43.07495659234259" lon="-0.042925629195555925"><ele>405.0</ele><time>2026-04-01T08:53:09Z</time></trkpt><trkpt lat="43.07474930323332" lon="-0.0428663981876646"><ele>407.33333333333337</ele><time>2026-04-01T08:53:10Z</time></trkpt><trkpt lat="43.074546152587" lon="-0.04281408433297316"><ele>409.6666666666667</ele><time>2026-04-01T08:53:11Z</time></trkpt><trkpt lat="43.07434163420688" lon="-0.042767523468479986"><ele>412.0</ele><time>2026-04-01T08:53:12Z</time></trkpt><trkpt lat="43.07412306007431" lon="-0.042725315854124854"><ele>413.5</ele><time>2026-04-01T08:53:13Z</time></trkpt><trkpt lat="43.07389152628807" lon="-0.042703376134586725"><ele>415.0</ele><time>2026-04-01T08:53:14Z</time></trkpt><trkpt lat="43.07366005242955" lon="-0.042715797748915825"><ele>415.0</ele><time>2026-04-01T08:53:15Z</time></trkpt><trkpt lat="43.07342572443355" lon="-0.04277012287097277"><ele>415.0</ele><time>2026-04-01T08:53:16Z</time></trkpt><trkpt lat="43.073194436990576" lon="-0.04282785512333847"><ele>415.0</ele><time>2026-04-01T08:53:17Z</time></trkpt><trkpt lat="43.072964205424924" lon="-0.04291234304778464"><ele>415.0</ele><time>2026-04-01T08:53:18Z</time></trkpt><trkpt lat="43.07273741721311" lon="-0.0430158304496428"><ele>415.0</ele><time>2026-04-01T08:53:19Z</time></trkpt><trkpt lat="43.07251352025626" lon="-0.04313634336753246"><ele>415.0</ele><time>2026-04-01T08:53:20Z</time></trkpt><trkpt lat="43.072293200751425" lon="-0.04326755750042723"><ele>412.0</ele><time>2026-04-01T08:53:21Z</time></trkpt><trkpt lat="43.07207313401371" lon="-0.0433955160413656"><ele>409.0</ele><time>2026-04-01T08:53:22Z</time></trkpt><trkpt lat="43.07184955930624" lon="-0.04351864579527367"><ele>409.0</ele><time>2026-04-01T08:53:23Z</time></trkpt><trkpt lat="43.071626103012626" lon="-0.04362605926830263"><ele>409.0</ele><time>2026-04-01T08:53:24Z</time></trkpt><trkpt lat="43.07140583785278" lon="-0.0437137290014234"><ele>407.6666666666667</ele><time>2026-04-01T08:53:25Z</time></trkpt><trkpt lat="43.071192219326676" lon="-0.04376697998716485"><ele>406.33333333333337</ele><time>2026-04-01T08:53:26Z</time></trkpt><trkpt lat="43.07097370673164" lon="-0.04380427655591646"><ele>405.0</ele><time>2026-04-01T08:53:27Z</time></trkpt><trkpt lat="43.07074326250528" lon="-0.04381858439243296"><ele>402.0</ele><time>2026-04-01T08:53:28Z</time></trkpt><trkpt lat="43.070504104944575" lon="-0.04380871878383273"><ele>399.0</ele><time>2026-04-01T08:53:29Z</time></trkpt><trkpt lat="43.07026480277825" lon="-0.04378111287977913"><ele>399.0</ele><time>2026-04-01T08:53:30Z</time></trkpt><trkpt lat="43.07002741093951" lon="-0.04373136613028355"><ele>399.0</ele><time>2026-04-01T08:53:31Z</time></trkpt><trkpt lat="43.06979177623198" lon="-0.043657638185519994"><ele>400.0</ele><time>2026-04-01T08:53:32Z</time></trkpt><trkpt lat="43.06956393513236" lon="-0.043552597005861275"><ele>401.0</ele><time>2026-04-01T08:53:33Z</time></trkpt><trkpt lat="43.06935115922045" lon="-0.0434283927185656"><ele>398.0</ele><time>2026-04-01T08:53:34Z</time></trkpt><trkpt lat="43.06914161641432" lon="-0.04328486225857014"><ele>395.0</ele><time>2026-04-01T08:53:35Z</time></trkpt><trkpt lat="43.06893798143216" lon="-0.04312326223083436"><ele>395.0</ele><time>2026-04-01T08:53:36Z</time></trkpt><trkpt lat="43.06873833662554" lon="-0.042956560510360925"><ele>395.0</ele><time>2026-04-01T08:53:37Z</time></trkpt><trkpt lat="43.068545786717216" lon="-0.042787947683791384"><ele>395.0</ele><time>2026-04-01T08:53:38Z</time></trkpt><trkpt lat="43.068352620024534" lon="-0.042620867185280395"><ele>395.0</ele><time>2026-04-01T08:53:39Z</time></trkpt><trkpt lat="43.06815982594161" lon="-0.042460223338700004"><ele>393.0</ele><time>2026-04-01T08:53:40Z</time></trkpt><trkpt lat="43.06796574456843" lon="-0.04231755094725974"><ele>391.0</ele><time>2026-04-01T08:53:41Z</time></trkpt><trkpt lat="43.067763236444954" lon="-0.04219276403342932"><ele>389.0</ele><time>2026-04-01T08:53:42Z</time></trkpt><trkpt lat="43.06756735113497" lon="-0.042089507496524764"><ele>389.3333333333333</ele><time>2026-04-01T08:53:43Z</time></trkpt><trkpt lat="43.067364857041696" lon="-0.04200703174599282"><ele>389.66666666666663</ele><time>2026-04-01T08:53:44Z</time></trkpt><trkpt lat="43.06715894550795" lon="-0.041947215135209645"><ele>390.0</ele><time>2026-04-01T08:53:45Z</time></trkpt><trkpt lat="43.06693828221877" lon="-0.0418948504878248"><ele>390.0</ele><time>2026-04-01T08:53:46Z</time></trkpt><trkpt lat="43.06670256979517" lon="-0.0418538395609344"><ele>390.0</ele><time>2026-04-01T08:53:47Z</time></trkpt><trkpt lat="43.06646609659664" lon="-0.04183378112881769"><ele>390.0</ele><time>2026-04-01T08:53:48Z</time></trkpt><trkpt lat="43.066226668321164" lon="-0.041833488285428724"><ele>390.0</ele><time>2026-04-01T08:53:49Z</time></trkpt><trkpt lat="43.06598180527948" lon="-0.04185222971288338"><ele>389.5</ele><time>2026-04-01T08:53:50Z</time></trkpt><trkpt lat="43.06574076242373" lon="-0.04188009946242319"><ele>389.0</ele><time>2026-04-01T08:53:51Z</time></trkpt><trkpt lat="43.06550192549478" lon="-0.04190986144668805"><ele>389.0</ele><time>2026-04-01T08:53:52Z</time></trkpt><trkpt lat="43.065266975022034" lon="-0.041938434301866334"><ele>389.0</ele><time>2026-04-01T08:53:53Z</time></trkpt><trkpt lat="43.06503908911059" lon="-0.041961994840294774"><ele>390.0</ele><time>2026-04-01T08:53:54Z</time></trkpt><trkpt lat="43.064816021277025" lon="-0.04198133222080747"><ele>391.0</ele><time>2026-04-01T08:53:55Z</time></trkpt><trkpt lat="43.06460035150447" lon="-0.04199954747901885"><ele>392.0</ele><time>2026-04-01T08:53:56Z</time></trkpt><trkpt lat="43.06438560315679" lon="-0.04202028780726617"><ele>392.0</ele><time>2026-04-01T08:53:57Z</time></trkpt><trkpt lat="43.06417125602025" lon="-0.042043445500058285"><ele>392.0</ele><time>2026-04-01T08:53:58Z</time></trkpt><trkpt lat="43.0639585062552" lon="-0.04206467579412678"><ele>392.0</ele><time>2026-04-01T08:53:59Z</time></trkpt><trkpt lat="43.06372959996446" lon="-0.042091006692913116"><ele>392.5</ele><time>2026-04-01T08:54:00Z</time></trkpt><trkpt lat="43.06349276189385" lon="-0.04212324014742555"><ele>393.0</ele><time>2026-04-01T08:54:01Z</time></trkpt><trkpt lat="43.06325350442248" lon="-0.04216653955429224"><ele>394.5</ele><time>2026-04-01T08:54:02Z</time></trkpt><trkpt lat="43.063014105326694" lon="-0.04221646196147394"><ele>396.0</ele><time>2026-04-01T08:54:03Z</time></trkpt><trkpt lat="43.06277352028015" lon="-0.04226782461459639"><ele>396.0</ele><time>2026-04-01T08:54:04Z</time></trkpt><trkpt lat="43.062530669859015" lon="-0.042324172549481676"><ele>396.0</ele><time>2026-04-01T08:54:05Z</time></trkpt><trkpt lat="43.062290330894655" lon="-0.04238552228964394"><ele>394.5</ele><time>2026-04-01T08:54:06Z</time></trkpt><trkpt lat="43.06205098662066" lon="-0.042454167088840124"><ele>393.0</ele><time>2026-04-01T08:54:07Z</time></trkpt><trkpt lat="43.06181186470632" lon="-0.04253094704418085"><ele>393.5</ele><time>2026-04-01T08:54:08Z</time></trkpt><trkpt lat="43.061573102943974" lon="-0.04261436667622186"><ele>394.0</ele><time>2026-04-01T08:54:09Z</time></trkpt><trkpt lat="43.061336931352194" lon="-0.0427019774933287"><ele>394.0</ele><time>2026-04-01T08:54:10Z</time></trkpt><trkpt lat="43.061103037510435" lon="-0.0428019101367365"><ele>394.0</ele><time>2026-04-01T08:54:11Z</time></trkpt><trkpt lat="43.0608708838257" lon="-0.042908877498726745"><ele>393.0</ele><time>2026-04-01T08:54:12Z</time></trkpt><trkpt lat="43.060640320158384" lon="-0.04302225844275367"><ele>392.0</ele><time>2026-04-01T08:54:13Z</time></trkpt><trkpt lat="43.06041193096033" lon="-0.0431456863290526"><ele>392.0</ele><time>2026-04-01T08:54:14Z</time></trkpt><trkpt lat="43.06017474183571" lon="-0.043288728802925835"><ele>392.0</ele><time>2026-04-01T08:54:15Z</time></trkpt><trkpt lat="43.05992674923211" lon="-0.04344836938140456"><ele>390.5</ele><time>2026-04-01T08:54:16Z</time></trkpt><trkpt lat="43.059683503535915" lon="-0.04361465264177437"><ele>389.0</ele><time>2026-04-01T08:54:17Z</time></trkpt><trkpt lat="43.05944367103448" lon="-0.04378377090369899"><ele>389.0</ele><time>2026-04-01T08:54:18Z</time></trkpt><trkpt lat="43.05920447013124" lon="-0.043958817616705045"><ele>389.0</ele><time>2026-04-01T08:54:19Z</time></trkpt><trkpt lat="43.05896921564977" lon="-0.044149119615673124"><ele>390.0</ele><time>2026-04-01T08:54:20Z</time></trkpt><trkpt lat="43.058730724914824" lon="-0.04435963602601705"><ele>391.0</ele><time>2026-04-01T08:54:21Z</time></trkpt><trkpt lat="43.0584906352475" lon="-0.04458768245686894"><ele>391.0</ele><time>2026-04-01T08:54:22Z</time></trkpt><trkpt lat="43.058257307512775" lon="-0.04482901859030552"><ele>391.0</ele><time>2026-04-01T08:54:23Z</time></trkpt><trkpt lat="43.05802096802516" lon="-0.04508044309227353"><ele>391.5</ele><time>2026-04-01T08:54:24Z</time></trkpt><trkpt lat="43.0577830356551" lon="-0.04534565063708207"><ele>392.0</ele><time>2026-04-01T08:54:25Z</time></trkpt><trkpt lat="43.05755171261919" lon="-0.045615029955874006"><ele>392.5</ele><time>2026-04-01T08:54:26Z</time></trkpt><trkpt lat="43.05733076364957" lon="-0.045881066812978544"><ele>393.0</ele><time>2026-04-01T08:54:27Z</time></trkpt><trkpt lat="43.05710732156933" lon="-0.04615018066509696"><ele>393.0</ele><time>2026-04-01T08:54:28Z</time></trkpt><trkpt lat="43.056890602597" lon="-0.04641122312250931"><ele>393.0</ele><time>2026-04-01T08:54:29Z</time></trkpt><trkpt lat="43.05667421383221" lon="-0.04667438457138731"><ele>393.0</ele><time>2026-04-01T08:54:30Z</time></trkpt><trkpt lat="43.05646334879908" lon="-0.04693852631155545"><ele>393.0</ele><time>2026-04-01T08:54:31Z</time></trkpt><trkpt lat="43.05625661770989" lon="-0.047191908540807105"><ele>393.0</ele><time>2026-04-01T08:54:32Z</time></trkpt><trkpt lat="43.05604590241598" lon="-0.04744374925794572"><ele>393.0</ele><time>2026-04-01T08:54:33Z</time></trkpt><trkpt lat="43.05584084534438" lon="-0.04769176337276865"><ele>394.5</ele><time>2026-04-01T08:54:34Z</time></trkpt><trkpt lat="43.055637229964056" lon="-0.04794435657023446"><ele>396.0</ele><time>2026-04-01T08:54:35Z</time></trkpt><trkpt lat="43.055433425824525" lon="-0.04819536838913364"><ele>398.0</ele><time>2026-04-01T08:54:36Z</time></trkpt><trkpt lat="43.05522860691736" lon="-0.048440728113317025"><ele>400.0</ele><time>2026-04-01T08:54:37Z</time></trkpt><trkpt lat="43.05502479212202" lon="-0.04868289697702622"><ele>398.5</ele><time>2026-04-01T08:54:38Z</time></trkpt><trkpt lat="43.054822636852" lon="-0.048928663160356496"><ele>397.0</ele><time>2026-04-01T08:54:39Z</time></trkpt><trkpt lat="43.05462258196966" lon="-0.049173084326846916"><ele>397.0</ele><time>2026-04-01T08:54:40Z</time></trkpt><trkpt lat="43.05442364111314" lon="-0.04941502120271283"><ele>397.0</ele><time>2026-04-01T08:54:41Z</time></trkpt><trkpt lat="43.05422469891426" lon="-0.049657650039006684"><ele>397.0</ele><time>2026-04-01T08:54:42Z</time></trkpt><trkpt lat="43.05402485550936" lon="-0.049901799674389055"><ele>397.0</ele><time>2026-04-01T08:54:43Z</time></trkpt><trkpt lat="43.053827788675996" lon="-0.05014242310082418"><ele>396.5</ele><time>2026-04-01T08:54:44Z</time></trkpt><trkpt lat="43.05362957900673" lon="-0.050382517642644654"><ele>396.0</ele><time>2026-04-01T08:54:45Z</time></trkpt><trkpt lat="43.05342902756209" lon="-0.05062623056356278"><ele>396.5</ele><time>2026-04-01T08:54:46Z</time></trkpt><trkpt lat="43.053225707156" lon="-0.050870101287193534"><ele>397.0</ele><time>2026-04-01T08:54:47Z</time></trkpt><trkpt lat="43.05302716761481" lon="-0.05111578079053873"><ele>397.0</ele><time>2026-04-01T08:54:48Z</time></trkpt><trkpt lat="43.05282613854822" lon="-0.051363324332434554"><ele>397.0</ele><time>2026-04-01T08:54:49Z</time></trkpt><trkpt lat="43.05262431584922" lon="-0.05161358037510475"><ele>398.0</ele><time>2026-04-01T08:54:50Z</time></trkpt><trkpt lat="43.05242221326659" lon="-0.051860892798484194"><ele>399.0</ele><time>2026-04-01T08:54:51Z</time></trkpt><trkpt lat="43.05222527514103" lon="-0.0521009332228797"><ele>399.0</ele><time>2026-04-01T08:54:52Z</time></trkpt><trkpt lat="43.052028415680574" lon="-0.05233850975144934"><ele>399.0</ele><time>2026-04-01T08:54:53Z</time></trkpt><trkpt lat="43.05183226358919" lon="-0.05257408407230974"><ele>399.0</ele><time>2026-04-01T08:54:54Z</time></trkpt><trkpt lat="43.05164134575702" lon="-0.05280915827886649"><ele>399.0</ele><time>2026-04-01T08:54:55Z</time></trkpt><trkpt lat="43.05144525274832" lon="-0.0530482748760472"><ele>399.5</ele><time>2026-04-01T08:54:56Z</time></trkpt><trkpt lat="43.05124644638851" lon="-0.05329246577743056"><ele>400.0</ele><time>2026-04-01T08:54:57Z</time></trkpt><trkpt lat="43.05104565543405" lon="-0.05353739293698799"><ele>400.0</ele><time>2026-04-01T08:54:58Z</time></trkpt><trkpt lat="43.05084585814327" lon="-0.05378454716223196"><ele>400.0</ele><time>2026-04-01T08:54:59Z</time></trkpt><trkpt lat="43.050648460698795" lon="-0.054026188250242406"><ele>400.0</ele><time>2026-04-01T08:55:00Z</time></trkpt><trkpt lat="43.05045158586546" lon="-0.05426752189818939"><ele>400.0</ele><time>2026-04-01T08:55:01Z</time></trkpt><trkpt lat="43.05025362401865" lon="-0.054511782630948656"><ele>400.0</ele><time>2026-04-01T08:55:02Z</time></trkpt><trkpt lat="43.05005676201505" lon="-0.05476695995349794"><ele>400.0</ele><time>2026-04-01T08:55:03Z</time></trkpt><trkpt lat="43.049864418874876" lon="-0.05503778688494286"><ele>400.5</ele><time>2026-04-01T08:55:04Z</time></trkpt><trkpt lat="43.049691915363006" lon="-0.055318302944053196"><ele>401.0</ele><time>2026-04-01T08:55:05Z</time></trkpt><trkpt lat="43.04953442669141" lon="-0.05560791398031214"><ele>403.5</ele><time>2026-04-01T08:55:06Z</time></trkpt><trkpt lat="43.04938111887524" lon="-0.05589904084910889"><ele>406.0</ele><time>2026-04-01T08:55:07Z</time></trkpt><trkpt lat="43.049224630856756" lon="-0.0561886420164713"><ele>405.5</ele><time>2026-04-01T08:55:08Z</time></trkpt><trkpt lat="43.04905702600308" lon="-0.056462268585074527"><ele>405.0</ele><time>2026-04-01T08:55:09Z</time></trkpt><trkpt lat="43.04887264497949" lon="-0.056751905599910925"><ele>405.0</ele><time>2026-04-01T08:55:10Z</time></trkpt><trkpt lat="43.04868602842144" lon="-0.05704006502232919"><ele>405.0</ele><time>2026-04-01T08:55:11Z</time></trkpt><trkpt lat="43.048496386325255" lon="-0.05730144984676012"><ele>404.0</ele><time>2026-04-01T08:55:12Z</time></trkpt><trkpt lat="43.04828652020879" lon="-0.05754929247586085"><ele>403.0</ele><time>2026-04-01T08:55:13Z</time></trkpt><trkpt lat="43.048071602625136" lon="-0.057780549896348864"><ele>403.0</ele><time>2026-04-01T08:55:14Z</time></trkpt><trkpt lat="43.04785262053971" lon="-0.05800390883080284"><ele>403.0</ele><time>2026-04-01T08:55:15Z</time></trkpt><trkpt lat="43.04762875647896" lon="-0.05822149246601874"><ele>405.0</ele><time>2026-04-01T08:55:16Z</time></trkpt><trkpt lat="43.04740459730579" lon="-0.0584343928632587"><ele>407.0</ele><time>2026-04-01T08:55:17Z</time></trkpt><trkpt lat="43.04718345864403" lon="-0.05864511564801697"><ele>407.0</ele><time>2026-04-01T08:55:18Z</time></trkpt><trkpt lat="43.04696491229871" lon="-0.05885201034574413"><ele>407.0</ele><time>2026-04-01T08:55:19Z</time></trkpt><trkpt lat="43.046747454624914" lon="-0.05905932441357763"><ele>406.5</ele><time>2026-04-01T08:55:20Z</time></trkpt><trkpt lat="43.04653300073524" lon="-0.059266080793729026"><ele>406.0</ele><time>2026-04-01T08:55:21Z</time></trkpt><trkpt lat="43.046317251018955" lon="-0.05947303163312891"><ele>406.0</ele><time>2026-04-01T08:55:22Z</time></trkpt><trkpt lat="43.04610072822024" lon="-0.05967902585915809"><ele>406.0</ele><time>2026-04-01T08:55:23Z</time></trkpt><trkpt lat="43.045884001221964" lon="-0.059887068559787794"><ele>407.0</ele><time>2026-04-01T08:55:24Z</time></trkpt><trkpt lat="43.045663382461875" lon="-0.06009443190141758"><ele>408.0</ele><time>2026-04-01T08:55:25Z</time></trkpt><trkpt lat="43.04544731040558" lon="-0.060301157703076445"><ele>408.0</ele><time>2026-04-01T08:55:26Z</time></trkpt><trkpt lat="43.045232666961304" lon="-0.06050889572384495"><ele>408.0</ele><time>2026-04-01T08:55:27Z</time></trkpt><trkpt lat="43.04501865006438" lon="-0.06071457172225852"><ele>407.0</ele><time>2026-04-01T08:55:28Z</time></trkpt><trkpt lat="43.04481051071408" lon="-0.060914737786737345"><ele>406.0</ele><time>2026-04-01T08:55:29Z</time></trkpt><trkpt lat="43.04460465379316" lon="-0.061113755469343334"><ele>406.0</ele><time>2026-04-01T08:55:30Z</time></trkpt><trkpt lat="43.04440342864722" lon="-0.061313333533186624"><ele>406.0</ele><time>2026-04-01T08:55:31Z</time></trkpt><trkpt lat="43.04420263306297" lon="-0.061511388064980285"><ele>403.5</ele><time>2026-04-01T08:55:32Z</time></trkpt><trkpt lat="43.044001529847044" lon="-0.061709865345936143"><ele>401.0</ele><time>2026-04-01T08:55:33Z</time></trkpt><trkpt lat="43.043801479452895" lon="-0.06191752959176136"><ele>401.0</ele><time>2026-04-01T08:55:34Z</time></trkpt><trkpt lat="43.04358759573921" lon="-0.06215563420448788"><ele>401.0</ele><time>2026-04-01T08:55:35Z</time></trkpt><trkpt lat="43.043373288147876" lon="-0.062409259433205896"><ele>402.5</ele><time>2026-04-01T08:55:36Z</time></trkpt><trkpt lat="43.043181925593736" lon="-0.0626817310306172"><ele>404.0</ele><time>2026-04-01T08:55:37Z</time></trkpt><trkpt lat="43.04299527100066" lon="-0.06294560464578909"><ele>404.0</ele><time>2026-04-01T08:55:38Z</time></trkpt><trkpt lat="43.04279532932087" lon="-0.06313611952839729"><ele>404.0</ele><time>2026-04-01T08:55:39Z</time></trkpt><trkpt lat="43.042587740257424" lon="-0.06337744858771922"><ele>401.5</ele><time>2026-04-01T08:55:40Z</time></trkpt><trkpt lat="43.042384406954426" lon="-0.06360225921461382"><ele>399.0</ele><time>2026-04-01T08:55:41Z</time></trkpt><trkpt lat="43.04217530159679" lon="-0.06381284768194782"><ele>399.0</ele><time>2026-04-01T08:55:42Z</time></trkpt><trkpt lat="43.04197389163001" lon="-0.06403036347521748"><ele>399.0</ele><time>2026-04-01T08:55:43Z</time></trkpt><trkpt lat="43.04169374620955" lon="-0.06419172034934666"><ele>397.5</ele><time>2026-04-01T08:55:44Z</time></trkpt><trkpt lat="43.04144172273431" lon="-0.06435362446002285"><ele>396.0</ele><time>2026-04-01T08:55:45Z</time></trkpt><trkpt lat="43.04118441826892" lon="-0.06449992730207864"><ele>396.0</ele><time>2026-04-01T08:55:46Z</time></trkpt><trkpt lat="43.04092874474081" lon="-0.06462796782687455"><ele>396.0</ele><time>2026-04-01T08:55:47Z</time></trkpt><trkpt lat="43.04066787809726" lon="-0.06473854888307304"><ele>398.0</ele><time>2026-04-01T08:55:48Z</time></trkpt><trkpt lat="43.04039732418945" lon="-0.0648354756888221"><ele>400.0</ele><time>2026-04-01T08:55:49Z</time></trkpt><trkpt lat="43.04011546804537" lon="-0.0649138794963965"><ele>400.0</ele><time>2026-04-01T08:55:50Z</time></trkpt><trkpt lat="43.03982667378586" lon="-0.06496434350419185"><ele>400.0</ele><time>2026-04-01T08:55:51Z</time></trkpt><trkpt lat="43.03953521687781" lon="-0.06498805462510847"><ele>400.0</ele><time>2026-04-01T08:55:52Z</time></trkpt><trkpt lat="43.03924139447108" lon="-0.0649876197372089"><ele>400.0</ele><time>2026-04-01T08:55:53Z</time></trkpt><trkpt lat="43.038947754207854" lon="-0.06496636479251096"><ele>402.0</ele><time>2026-04-01T08:55:54Z</time></trkpt><trkpt lat="43.03865634923679" lon="-0.06492124124745993"><ele>404.0</ele><time>2026-04-01T08:55:55Z</time></trkpt><trkpt lat="43.038365062492396" lon="-0.06485037589866918"><ele>404.0</ele><time>2026-04-01T08:55:56Z</time></trkpt><trkpt lat="43.038077118745576" lon="-0.0647561724746605"><ele>404.0</ele><time>2026-04-01T08:55:57Z</time></trkpt><trkpt lat="43.03779424542183" lon="-0.06464451857572454"><ele>404.0</ele><time>2026-04-01T08:55:58Z</time></trkpt><trkpt lat="43.03751414706072" lon="-0.0645260903279975"><ele>404.0</ele><time>2026-04-01T08:55:59Z</time></trkpt><trkpt lat="43.037232997293266" lon="-0.06441113563275408"><ele>403.0</ele><time>2026-04-01T08:56:00Z</time></trkpt><trkpt lat="43.03694973366815" lon="-0.0642912034047025"><ele>402.0</ele><time>2026-04-01T08:56:01Z</time></trkpt><trkpt lat="43.0366527872196" lon="-0.0641597474235776"><ele>402.5</ele><time>2026-04-01T08:56:02Z</time></trkpt><trkpt lat="43.03634392906887" lon="-0.06403399689626231"><ele>403.0</ele><time>2026-04-01T08:56:03Z</time></trkpt><trkpt lat="43.036033951985324" lon="-0.0639247813106894"><ele>403.5</ele><time>2026-04-01T08:56:04Z</time></trkpt><trkpt lat="43.03572219748773" lon="-0.06383442474456769"><ele>404.0</ele><time>2026-04-01T08:56:05Z</time></trkpt><trkpt lat="43.03540417278047" lon="-0.06376437457450147"><ele>404.0</ele><time>2026-04-01T08:56:06Z</time></trkpt><trkpt lat="43.03508451629345" lon="-0.06372339043395948"><ele>404.0</ele><time>2026-04-01T08:56:07Z</time></trkpt><trkpt lat="43.034765041094616" lon="-0.06370742972470977"><ele>404.0</ele><time>2026-04-01T08:56:08Z</time></trkpt><trkpt lat="43.034448325107576" lon="-0.06371746075317987"><ele>404.0</ele><time>2026-04-01T08:56:09Z</time></trkpt><trkpt lat="43.034133123189044" lon="-0.06374754406020498"><ele>404.0</ele><time>2026-04-01T08:56:10Z</time></trkpt><trkpt lat="43.03382332746038" lon="-0.06380104524841795"><ele>404.0</ele><time>2026-04-01T08:56:11Z</time></trkpt><trkpt lat="43.03351970800336" lon="-0.06388239595747124"><ele>405.0</ele><time>2026-04-01T08:56:12Z</time></trkpt><trkpt lat="43.03322034453643" lon="-0.06398787550476338"><ele>406.0</ele><time>2026-04-01T08:56:13Z</time></trkpt><trkpt lat="43.032926757722386" lon="-0.06413091320248558"><ele>406.5</ele><time>2026-04-01T08:56:14Z</time></trkpt><trkpt lat="43.03262876944483" lon="-0.06428450333978371"><ele>407.0</ele><time>2026-04-01T08:56:15Z</time></trkpt><trkpt lat="43.032340497570054" lon="-0.06445820897066944"><ele>407.0</ele><time>2026-04-01T08:56:16Z</time></trkpt><trkpt lat="43.03206252588865" lon="-0.06464984313700363"><ele>407.0</ele><time>2026-04-01T08:56:17Z</time></trkpt><trkpt lat="43.031791384593596" lon="-0.06485196251489601"><ele>406.0</ele><time>2026-04-01T08:56:18Z</time></trkpt><trkpt lat="43.03152333220221" lon="-0.06507221621699838"><ele>405.0</ele><time>2026-04-01T08:56:19Z</time></trkpt><trkpt lat="43.031270150236764" lon="-0.06531269167122321"><ele>405.0</ele><time>2026-04-01T08:56:20Z</time></trkpt><trkpt lat="43.03102475499909" lon="-0.06557467764674339"><ele>405.0</ele><time>2026-04-01T08:56:21Z</time></trkpt><trkpt lat="43.03079758436616" lon="-0.06585421293169337"><ele>404.5</ele><time>2026-04-01T08:56:22Z</time></trkpt><trkpt lat="43.0305797167414" lon="-0.06615095377873748"><ele>404.0</ele><time>2026-04-01T08:56:23Z</time></trkpt><trkpt lat="43.030377327866695" lon="-0.06645972360387235"><ele>404.5</ele><time>2026-04-01T08:56:24Z</time></trkpt><trkpt lat="43.03018198249321" lon="-0.066780979841408"><ele>405.0</ele><time>2026-04-01T08:56:25Z</time></trkpt><trkpt lat="43.0300018953357" lon="-0.06711078283593504"><ele>405.0</ele><time>2026-04-01T08:56:26Z</time></trkpt><trkpt lat="43.02983994858722" lon="-0.06745162502487519"><ele>405.0</ele><time>2026-04-01T08:56:27Z</time></trkpt><trkpt lat="43.02969178785988" lon="-0.0677980720028721"><ele>405.0</ele><time>2026-04-01T08:56:28Z</time></trkpt><trkpt lat="43.02955768780166" lon="-0.06814588233485203"><ele>405.0</ele><time>2026-04-01T08:56:29Z</time></trkpt><trkpt lat="43.02944071575674" lon="-0.06850283322971616"><ele>406.0</ele><time>2026-04-01T08:56:30Z</time></trkpt><trkpt lat="43.02933552907362" lon="-0.06886184286956722"><ele>407.0</ele><time>2026-04-01T08:56:31Z</time></trkpt><trkpt lat="43.02924085179916" lon="-0.06922607543233221"><ele>407.5</ele><time>2026-04-01T08:56:32Z</time></trkpt><trkpt lat="43.02915956842484" lon="-0.06959498028572085"><ele>408.0</ele><time>2026-04-01T08:56:33Z</time></trkpt><trkpt lat="43.02909696480144" lon="-0.06996276313413913"><ele>408.5</ele><time>2026-04-01T08:56:34Z</time></trkpt><trkpt lat="43.02904323056677" lon="-0.07033305058397435"><ele>409.0</ele><time>2026-04-01T08:56:35Z</time></trkpt><trkpt lat="43.02899873764435" lon="-0.07070601501505311"><ele>408.5</ele><time>2026-04-01T08:56:36Z</time></trkpt><trkpt lat="43.02895881223416" lon="-0.07107494984249518"><ele>408.0</ele><time>2026-04-01T08:56:37Z</time></trkpt><trkpt lat="43.028914552267786" lon="-0.07144588509933604"><ele>406.5</ele><time>2026-04-01T08:56:38Z</time></trkpt><trkpt lat="43.02886868476912" lon="-0.07183480644801529"><ele>405.0</ele><time>2026-04-01T08:56:39Z</time></trkpt><trkpt lat="43.02882168489861" lon="-0.0722304554188519"><ele>407.0</ele><time>2026-04-01T08:56:40Z</time></trkpt><trkpt lat="43.02877518089153" lon="-0.07262350367992249"><ele>409.0</ele><time>2026-04-01T08:56:41Z</time></trkpt><trkpt lat="43.0287273274904" lon="-0.07301514306674053"><ele>409.5</ele><time>2026-04-01T08:56:42Z</time></trkpt><trkpt lat="43.02868007248629" lon="-0.07340675415964035"><ele>410.0</ele><time>2026-04-01T08:56:43Z</time></trkpt><trkpt lat="43.028634343297796" lon="-0.07380040243733638"><ele>409.5</ele><time>2026-04-01T08:56:44Z</time></trkpt><trkpt lat="43.02858608643553" lon="-0.07419314448626003"><ele>409.0</ele><time>2026-04-01T08:56:45Z</time></trkpt><trkpt lat="43.02854096694087" lon="-0.07458946437112109"><ele>410.0</ele><time>2026-04-01T08:56:46Z</time></trkpt><trkpt lat="43.02849611859556" lon="-0.07498376803102512"><ele>411.0</ele><time>2026-04-01T08:56:47Z</time></trkpt><trkpt lat="43.02844979295574" lon="-0.07537331049644026"><ele>411.0</ele><time>2026-04-01T08:56:48Z</time></trkpt><trkpt lat="43.02840435902954" lon="-0.07576007596642759"><ele>411.0</ele><time>2026-04-01T08:56:49Z</time></trkpt><trkpt lat="43.02835943420473" lon="-0.07614488812837769"><ele>411.5</ele><time>2026-04-01T08:56:50Z</time></trkpt><trkpt lat="43.02831249225304" lon="-0.0765211003067896"><ele>412.0</ele><time>2026-04-01T08:56:51Z</time></trkpt><trkpt lat="43.02825820619122" lon="-0.07689970400336492"><ele>412.0</ele><time>2026-04-01T08:56:52Z</time></trkpt><trkpt lat="43.028204191370335" lon="-0.07727939905023078"><ele>412.0</ele><time>2026-04-01T08:56:53Z</time></trkpt><trkpt lat="43.02814443067695" lon="-0.07766009236122455"><ele>412.0</ele><time>2026-04-01T08:56:54Z</time></trkpt><trkpt lat="43.028085644340834" lon="-0.07804674245608156"><ele>412.0</ele><time>2026-04-01T08:56:55Z</time></trkpt><trkpt lat="43.02799659598393" lon="-0.07832036551339332"><ele>412.0</ele><time>2026-04-01T08:56:56Z</time></trkpt><trkpt lat="43.02803516284871" lon="-0.0785422473431853"><ele>412.0</ele><time>2026-04-01T08:56:57Z</time></trkpt><trkpt lat="43.02798421857678" lon="-0.0788297558567693"><ele>412.0</ele><time>2026-04-01T08:56:58Z</time></trkpt><trkpt lat="43.02791983379829" lon="-0.07913352847850341"><ele>411.5</ele><time>2026-04-01T08:56:59Z</time></trkpt><trkpt lat="43.027841633964066" lon="-0.07944681200135151"><ele>411.0</ele><time>2026-04-01T08:57:00Z</time></trkpt><trkpt lat="43.02775036513243" lon="-0.07975900439527128"><ele>411.5</ele><time>2026-04-01T08:57:01Z</time></trkpt><trkpt lat="43.02764959449747" lon="-0.08006928417658275"><ele>412.0</ele><time>2026-04-01T08:57:02Z</time></trkpt><trkpt lat="43.02753743141715" lon="-0.08037218235492316"><ele>411.5</ele><time>2026-04-01T08:57:03Z</time></trkpt><trkpt lat="43.02741103860836" lon="-0.08066939088404221"><ele>411.0</ele><time>2026-04-01T08:57:04Z</time></trkpt><trkpt lat="43.027273253784315" lon="-0.08095743221558654"><ele>412.5</ele><time>2026-04-01T08:57:05Z</time></trkpt><trkpt lat="43.02712053745032" lon="-0.08124129099633119"><ele>414.0</ele><time>2026-04-01T08:57:06Z</time></trkpt><trkpt lat="43.026955861966506" lon="-0.08152525131873951"><ele>415.0</ele><time>2026-04-01T08:57:07Z</time></trkpt><trkpt lat="43.02677870025448" lon="-0.08180255420457723"><ele>416.0</ele><time>2026-04-01T08:57:08Z</time></trkpt><trkpt lat="43.026593681873386" lon="-0.08207428548564129"><ele>416.5</ele><time>2026-04-01T08:57:09Z</time></trkpt><trkpt lat="43.02640001436872" lon="-0.08233017620752645"><ele>417.0</ele><time>2026-04-01T08:57:10Z</time></trkpt><trkpt lat="43.02619386511666" lon="-0.08256946013105249"><ele>417.0</ele><time>2026-04-01T08:57:11Z</time></trkpt><trkpt lat="43.025977824790935" lon="-0.08278890079519619"><ele>417.0</ele><time>2026-04-01T08:57:12Z</time></trkpt><trkpt lat="43.02575130331466" lon="-0.08299445856665648"><ele>417.0</ele><time>2026-04-01T08:57:13Z</time></trkpt><trkpt lat="43.02551701005891" lon="-0.08318486045397368"><ele>417.0</ele><time>2026-04-01T08:57:14Z</time></trkpt><trkpt lat="43.02527652303214" lon="-0.0833656049252323"><ele>417.5</ele><time>2026-04-01T08:57:15Z</time></trkpt><trkpt lat="43.02503071545027" lon="-0.08353025481283845"><ele>418.0</ele><time>2026-04-01T08:57:16Z</time></trkpt><trkpt lat="43.02477588834279" lon="-0.08368052774214502"><ele>418.0</ele><time>2026-04-01T08:57:17Z</time></trkpt><trkpt lat="43.02451832280068" lon="-0.08382573773450977"><ele>418.0</ele><time>2026-04-01T08:57:18Z</time></trkpt><trkpt lat="43.024262546320884" lon="-0.08396983863710034"><ele>418.5</ele><time>2026-04-01T08:57:19Z</time></trkpt><trkpt lat="43.02400035503327" lon="-0.0841217753688681"><ele>419.0</ele><time>2026-04-01T08:57:20Z</time></trkpt><trkpt lat="43.02373255025132" lon="-0.08427862752481978"><ele>419.0</ele><time>2026-04-01T08:57:21Z</time></trkpt><trkpt lat="43.0234611568694" lon="-0.08443419426848923"><ele>419.0</ele><time>2026-04-01T08:57:22Z</time></trkpt><trkpt lat="43.02319439609379" lon="-0.08458849107764721"><ele>418.5</ele><time>2026-04-01T08:57:23Z</time></trkpt><trkpt lat="43.022927267138144" lon="-0.0847429130605743"><ele>418.0</ele><time>2026-04-01T08:57:24Z</time></trkpt><trkpt lat="43.02266063162161" lon="-0.08489569077773905"><ele>418.0</ele><time>2026-04-01T08:57:25Z</time></trkpt><trkpt lat="43.022394981313234" lon="-0.08504729348090106"><ele>418.0</ele><time>2026-04-01T08:57:26Z</time></trkpt><trkpt lat="43.02212135255208" lon="-0.08520541249020624"><ele>418.0</ele><time>2026-04-01T08:57:27Z</time></trkpt><trkpt lat="43.02184510493001" lon="-0.08537190089342483"><ele>418.0</ele><time>2026-04-01T08:57:28Z</time></trkpt><trkpt lat="43.021567502189846" lon="-0.08553737910149431"><ele>418.0</ele><time>2026-04-01T08:57:29Z</time></trkpt><trkpt lat="43.021283866316665" lon="-0.08570202112382516"><ele>418.0</ele><time>2026-04-01T08:57:30Z</time></trkpt><trkpt lat="43.021010507948155" lon="-0.0858582501814829"><ele>419.0</ele><time>2026-04-01T08:57:31Z</time></trkpt><trkpt lat="43.020740454514" lon="-0.08601894701025803"><ele>420.0</ele><time>2026-04-01T08:57:32Z</time></trkpt><trkpt lat="43.02047015252033" lon="-0.08617575296034269"><ele>420.0</ele><time>2026-04-01T08:57:33Z</time></trkpt><trkpt lat="43.02019730943784" lon="-0.08633027629157898"><ele>420.0</ele><time>2026-04-01T08:57:34Z</time></trkpt><trkpt lat="43.01991510000467" lon="-0.08648345303510581"><ele>420.0</ele><time>2026-04-01T08:57:35Z</time></trkpt><trkpt lat="43.019621819015306" lon="-0.08663332373774905"><ele>420.0</ele><time>2026-04-01T08:57:36Z</time></trkpt><trkpt lat="43.019320942756735" lon="-0.08677707661737027"><ele>420.0</ele><time>2026-04-01T08:57:37Z</time></trkpt><trkpt lat="43.0190113098303" lon="-0.08691233045660747"><ele>420.0</ele><time>2026-04-01T08:57:38Z</time></trkpt><trkpt lat="43.01870424557216" lon="-0.08702351928591057"><ele>420.0</ele><time>2026-04-01T08:57:39Z</time></trkpt><trkpt lat="43.018399476870584" lon="-0.08711150037029347"><ele>420.0</ele><time>2026-04-01T08:57:40Z</time></trkpt><trkpt lat="43.01810274787009" lon="-0.08717947423847182"><ele>419.0</ele><time>2026-04-01T08:57:41Z</time></trkpt><trkpt lat="43.01780065544529" lon="-0.0872343983025545"><ele>418.0</ele><time>2026-04-01T08:57:42Z</time></trkpt><trkpt lat="43.017500607099464" lon="-0.08727594143304661"><ele>418.0</ele><time>2026-04-01T08:57:43Z</time></trkpt><trkpt lat="43.017199970211074" lon="-0.0873038508878208"><ele>418.0</ele><time>2026-04-01T08:57:44Z</time></trkpt><trkpt lat="43.01689534619945" lon="-0.08731079965000532"><ele>418.5</ele><time>2026-04-01T08:57:45Z</time></trkpt><trkpt lat="43.016598562864665" lon="-0.08730529640794679"><ele>419.0</ele><time>2026-04-01T08:57:46Z</time></trkpt><trkpt lat="43.01629937144469" lon="-0.08728064114151937"><ele>419.0</ele><time>2026-04-01T08:57:47Z</time></trkpt><trkpt lat="43.01601014059256" lon="-0.08724341587452449"><ele>419.0</ele><time>2026-04-01T08:57:48Z</time></trkpt><trkpt lat="43.01572772930162" lon="-0.08719496154532438"><ele>419.5</ele><time>2026-04-01T08:57:49Z</time></trkpt><trkpt lat="43.01544264532022" lon="-0.08713814109305838"><ele>420.0</ele><time>2026-04-01T08:57:50Z</time></trkpt><trkpt lat="43.01515112960656" lon="-0.08707502124913763"><ele>420.0</ele><time>2026-04-01T08:57:51Z</time></trkpt><trkpt lat="43.01487366808151" lon="-0.0870099011914622"><ele>420.0</ele><time>2026-04-01T08:57:52Z</time></trkpt><trkpt lat="43.014607439887044" lon="-0.08694473264546494"><ele>420.0</ele><time>2026-04-01T08:57:53Z</time></trkpt><trkpt lat="43.014362579426574" lon="-0.08688059676619361"><ele>420.0</ele><time>2026-04-01T08:57:54Z</time></trkpt><trkpt lat="43.014133979425644" lon="-0.08682121869008055"><ele>420.0</ele><time>2026-04-01T08:57:55Z</time></trkpt><trkpt lat="43.01392513454055" lon="-0.08676843260537538"><ele>420.0</ele><time>2026-04-01T08:57:56Z</time></trkpt><trkpt lat="43.013737976355266" lon="-0.08672434990734897"><ele>420.0</ele><time>2026-04-01T08:57:57Z</time></trkpt><trkpt lat="43.01357379693043" lon="-0.0866865802949684"><ele>420.0</ele><time>2026-04-01T08:57:58Z</time></trkpt><trkpt lat="43.01343336246071" lon="-0.08665702879488586"><ele>420.0</ele><time>2026-04-01T08:57:59Z</time></trkpt><trkpt lat="43.013310087556256" lon="-0.08663527506875861"><ele>420.0</ele><time>2026-04-01T08:58:00Z</time></trkpt><trkpt lat="43.013196685057245" lon="-0.08662678441649914"><ele>420.0</ele><time>2026-04-01T08:58:01Z</time></trkpt><trkpt lat="43.01309157477998" lon="-0.08664968218050162"><ele>419.6</ele><time>2026-04-01T08:58:02Z</time></trkpt><trkpt lat="43.01299181971284" lon="-0.08668325096641133"><ele>419.2</ele><time>2026-04-01T08:58:03Z</time></trkpt><trkpt lat="43.01290211588611" lon="-0.08665938771476446"><ele>418.79999999999995</ele><time>2026-04-01T08:58:04Z</time></trkpt><trkpt lat="43.01281321297516" lon="-0.08658910525378605"><ele>418.4</ele><time>2026-04-01T08:58:05Z</time></trkpt><trkpt lat="43.012726292361926" lon="-0.08650780772848383"><ele>418.0</ele><time>2026-04-01T08:58:06Z</time></trkpt><trkpt lat="43.012628799474996" lon="-0.08644436293762336"><ele>418.0</ele><time>2026-04-01T08:58:07Z</time></trkpt><trkpt lat="43.01252308223145" lon="-0.08641080094955694"><ele>418.0</ele><time>2026-04-01T08:58:08Z</time></trkpt><trkpt lat="43.01239810860521" lon="-0.08639821484209133"><ele>418.0</ele><time>2026-04-01T08:58:09Z</time></trkpt><trkpt lat="43.012264956958404" lon="-0.08638048280670153"><ele>418.0</ele><time>2026-04-01T08:58:10Z</time></trkpt><trkpt lat="43.01212408465425" lon="-0.08635107701986021"><ele>418.0</ele><time>2026-04-01T08:58:11Z</time></trkpt><trkpt lat="43.01197333394539" lon="-0.08631734369499972"><ele>418.0</ele><time>2026-04-01T08:58:12Z</time></trkpt><trkpt lat="43.01181637651517" lon="-0.08628582800170811"><ele>418.0</ele><time>2026-04-01T08:58:13Z</time></trkpt><trkpt lat="43.01165068613173" lon="-0.08625100902181729"><ele>418.6666666666667</ele><time>2026-04-01T08:58:14Z</time></trkpt><trkpt lat="43.01147587669682" lon="-0.08621076266747646"><ele>419.33333333333337</ele><time>2026-04-01T08:58:15Z</time></trkpt><trkpt lat="43.011286799894236" lon="-0.08616597182580121"><ele>420.0</ele><time>2026-04-01T08:58:16Z</time></trkpt><trkpt lat="43.01107702319471" lon="-0.08612199711016795"><ele>420.0</ele><time>2026-04-01T08:58:17Z</time></trkpt><trkpt lat="43.010859597997644" lon="-0.086079105237457"><ele>420.0</ele><time>2026-04-01T08:58:18Z</time></trkpt><trkpt lat="43.01064508653935" lon="-0.08603273380302323"><ele>420.0</ele><time>2026-04-01T08:58:19Z</time></trkpt><trkpt lat="43.010431529555326" lon="-0.08598246506039593"><ele>420.0</ele><time>2026-04-01T08:58:20Z</time></trkpt><trkpt lat="43.01021660297135" lon="-0.08593568551183935"><ele>420.0</ele><time>2026-04-01T08:58:21Z</time></trkpt><trkpt lat="43.00999768412953" lon="-0.08589056311296976"><ele>420.0</ele><time>2026-04-01T08:58:22Z</time></trkpt><trkpt lat="43.009774129162764" lon="-0.08584404777681842"><ele>420.0</ele><time>2026-04-01T08:58:23Z</time></trkpt><trkpt lat="43.009548456573974" lon="-0.08579430973170357"><ele>420.0</ele><time>2026-04-01T08:58:24Z</time></trkpt><trkpt lat="43.009323730654465" lon="-0.08574175110360384"><ele>420.66666666666663</ele><time>2026-04-01T08:58:25Z</time></trkpt><trkpt lat="43.00910475407044" lon="-0.08569294119673974"><ele>421.3333333333333</ele><time>2026-04-01T08:58:26Z</time></trkpt><trkpt lat="43.008888820137784" lon="-0.08564437311352306"><ele>422.0</ele><time>2026-04-01T08:58:27Z</time></trkpt><trkpt lat="43.00867177575958" lon="-0.08559855070351717"><ele>422.0</ele><time>2026-04-01T08:58:28Z</time></trkpt><trkpt lat="43.008460651827384" lon="-0.08555179426870815"><ele>422.0</ele><time>2026-04-01T08:58:29Z</time></trkpt><trkpt lat="43.0082553555074" lon="-0.08550879941603351"><ele>422.0</ele><time>2026-04-01T08:58:30Z</time></trkpt><trkpt lat="43.00805583874347" lon="-0.08546304971888727"><ele>422.3333333333333</ele><time>2026-04-01T08:58:31Z</time></trkpt><trkpt lat="43.007861775552406" lon="-0.08541617775441632"><ele>422.66666666666663</ele><time>2026-04-01T08:58:32Z</time></trkpt><trkpt lat="43.007673332083016" lon="-0.08536941247295239"><ele>423.0</ele><time>2026-04-01T08:58:33Z</time></trkpt><trkpt lat="43.00746534189835" lon="-0.08532526173146716"><ele>423.0</ele><time>2026-04-01T08:58:34Z</time></trkpt><trkpt lat="43.007275889659006" lon="-0.08527368864584299"><ele>423.0</ele><time>2026-04-01T08:58:35Z</time></trkpt><trkpt lat="43.00709282242652" lon="-0.08520280633402476"><ele>423.0</ele><time>2026-04-01T08:58:36Z</time></trkpt><trkpt lat="43.0069105387278" lon="-0.08510146503062939"><ele>423.0</ele><time>2026-04-01T08:58:37Z</time></trkpt><trkpt lat="43.00673561879334" lon="-0.08498139279212086"><ele>423.0</ele><time>2026-04-01T08:58:38Z</time></trkpt><trkpt lat="43.00656519457176" lon="-0.08483774091664183"><ele>423.0</ele><time>2026-04-01T08:58:39Z</time></trkpt><trkpt lat="43.0064008662303" lon="-0.08467684194302655"><ele>423.0</ele><time>2026-04-01T08:58:40Z</time></trkpt><trkpt lat="43.00624673072419" lon="-0.08450355547728433"><ele>423.0</ele><time>2026-04-01T08:58:41Z</time></trkpt><trkpt lat="43.00610451756618" lon="-0.08430776611657466"><ele>423.0</ele><time>2026-04-01T08:58:42Z</time></trkpt><trkpt lat="43.005986815946564" lon="-0.08411266315270774"><ele>423.0</ele><time>2026-04-01T08:58:43Z</time></trkpt><trkpt lat="43.00588940880911" lon="-0.08392397871089102"><ele>423.0</ele><time>2026-04-01T08:58:44Z</time></trkpt><trkpt lat="43.00580372171083" lon="-0.08374112075254664"><ele>423.0</ele><time>2026-04-01T08:58:45Z</time></trkpt><trkpt lat="43.00571079863678" lon="-0.08357438700844402"><ele>423.0</ele><time>2026-04-01T08:58:46Z</time></trkpt><trkpt lat="43.00562029048324" lon="-0.08342834173682234"><ele>423.0</ele><time>2026-04-01T08:58:47Z</time></trkpt><trkpt lat="43.005551684670685" lon="-0.08329805323355895"><ele>423.0</ele><time>2026-04-01T08:58:48Z</time></trkpt><trkpt lat="43.005497878081634" lon="-0.0831985256473439"><ele>423.0</ele><time>2026-04-01T08:58:49Z</time></trkpt><trkpt lat="43.005459030965525" lon="-0.08311911416041345"><ele>423.0</ele><time>2026-04-01T08:58:50Z</time></trkpt><trkpt lat="43.005383181358916" lon="-0.08299211931517571"><ele>422.8333333333333</ele><time>2026-04-01T08:58:52Z</time></trkpt><trkpt lat="43.005295190684535" lon="-0.082974773242081"><ele>422.66666666666663</ele><time>2026-04-01T08:58:53Z</time></trkpt><trkpt lat="43.00522294597201" lon="-0.08297002005105228"><ele>422.5</ele><time>2026-04-01T08:58:54Z</time></trkpt><trkpt lat="43.00515275882718" lon="-0.08293530538873074"><ele>422.3333333333333</ele><time>2026-04-01T08:58:55Z</time></trkpt><trkpt lat="43.00508951178657" lon="-0.08286739785628659"><ele>422.16666666666663</ele><time>2026-04-01T08:58:56Z</time></trkpt><trkpt lat="43.00504779176001" lon="-0.08278132190901481"><ele>422.0</ele><time>2026-04-01T08:58:57Z</time></trkpt><trkpt lat="43.00503227552091" lon="-0.08268397988664315"><ele>421.99999999999994</ele><time>2026-04-01T08:58:58Z</time></trkpt><trkpt lat="43.00503860107256" lon="-0.08257507558112005"><ele>422.0</ele><time>2026-04-01T08:58:59Z</time></trkpt><trkpt lat="43.00507328884691" lon="-0.08246977742957759"><ele>422.0</ele><time>2026-04-01T08:59:00Z</time></trkpt><trkpt lat="43.00514143181582" lon="-0.08242390609515786"><ele>422.0</ele><time>2026-04-01T08:59:01Z</time></trkpt><trkpt lat="43.00525840915882" lon="-0.08238245522759528"><ele>421.99999999999994</ele><time>2026-04-01T08:59:03Z</time></trkpt><trkpt lat="43.005342690645605" lon="-0.08239023511736981"><ele>422.0</ele><time>2026-04-01T08:59:04Z</time></trkpt><trkpt lat="43.005422169460054" lon="-0.08239389531639837"><ele>421.75</ele><time>2026-04-01T08:59:05Z</time></trkpt><trkpt lat="43.00545255989757" lon="-0.08215282642307423"><ele>421.5</ele><time>2026-04-01T08:59:07Z</time></trkpt><trkpt lat="43.00547249319649" lon="-0.08204625563433235"><ele>421.25</ele><time>2026-04-01T08:59:08Z</time></trkpt><trkpt lat="43.00545728153859" lon="-0.0819058235183045"><ele>421.0</ele><time>2026-04-01T08:59:09Z</time></trkpt><trkpt lat="43.005440915140326" lon="-0.08173880462544415"><ele>422.25</ele><time>2026-04-01T08:59:10Z</time></trkpt><trkpt lat="43.005427962520045" lon="-0.08155123468806376"><ele>423.5</ele><time>2026-04-01T08:59:11Z</time></trkpt><trkpt lat="43.00541607332255" lon="-0.08136212332265096"><ele>424.75</ele><time>2026-04-01T08:59:12Z</time></trkpt><trkpt lat="43.005406852418886" lon="-0.08116437406542536"><ele>426.0</ele><time>2026-04-01T08:59:13Z</time></trkpt><trkpt lat="43.00538982039235" lon="-0.08098131846556451"><ele>426.0</ele><time>2026-04-01T08:59:14Z</time></trkpt><trkpt lat="43.0053568819788" lon="-0.08082240017483844"><ele>426.0</ele><time>2026-04-01T08:59:15Z</time></trkpt><trkpt lat="43.00525992078409" lon="-0.0807215644953096"><ele>426.0</ele><time>2026-04-01T08:59:16Z</time></trkpt><trkpt lat="43.00516483679449" lon="-0.08059145942819333"><ele>426.0</ele><time>2026-04-01T08:59:17Z</time></trkpt><trkpt lat="43.00506352046059" lon="-0.0804376087596871"><ele>425.66666666666663</ele><time>2026-04-01T08:59:18Z</time></trkpt><trkpt lat="43.00498335124315" lon="-0.08025334171919327"><ele>425.3333333333333</ele><time>2026-04-01T08:59:19Z</time></trkpt><trkpt lat="43.00488769804515" lon="-0.08008215351892942"><ele>425.0</ele><time>2026-04-01T08:59:20Z</time></trkpt><trkpt lat="43.0047872535415" lon="-0.07991536785116976"><ele>428.25</ele><time>2026-04-01T08:59:21Z</time></trkpt><trkpt lat="43.00469240045273" lon="-0.07977916959976447"><ele>431.5</ele><time>2026-04-01T08:59:22Z</time></trkpt><trkpt lat="43.00459466621594" lon="-0.07966715438224209"><ele>434.75</ele><time>2026-04-01T08:59:23Z</time></trkpt><trkpt lat="43.004478165855616" lon="-0.07956968689881369"><ele>438.0</ele><time>2026-04-01T08:59:24Z</time></trkpt><trkpt lat="43.004348468768654" lon="-0.07949197339398179"><ele>438.0</ele><time>2026-04-01T08:59:25Z</time></trkpt><trkpt lat="43.00421510551976" lon="-0.07941761279727132"><ele>438.0</ele><time>2026-04-01T08:59:26Z</time></trkpt><trkpt lat="43.004062225260746" lon="-0.07934891037898388"><ele>438.0</ele><time>2026-04-01T08:59:27Z</time></trkpt><trkpt lat="43.00388739891595" lon="-0.07929484585328253"><ele>434.33333333333337</ele><time>2026-04-01T08:59:28Z</time></trkpt><trkpt lat="43.00369620976867" lon="-0.07924609250567674"><ele>430.6666666666667</ele><time>2026-04-01T08:59:29Z</time></trkpt><trkpt lat="43.00349525880676" lon="-0.07920962822009225"><ele>427.0</ele><time>2026-04-01T08:59:30Z</time></trkpt><trkpt lat="43.003288034793805" lon="-0.07918273279372605"><ele>427.0</ele><time>2026-04-01T08:59:31Z</time></trkpt><trkpt lat="43.00308215033143" lon="-0.07915457190850674"><ele>427.0</ele><time>2026-04-01T08:59:32Z</time></trkpt><trkpt lat="43.00287605735763" lon="-0.07911845655813786"><ele>427.0</ele><time>2026-04-01T08:59:33Z</time></trkpt><trkpt lat="43.002669725644324" lon="-0.07907876475495293"><ele>428.0</ele><time>2026-04-01T08:59:34Z</time></trkpt><trkpt lat="43.0024626478917" lon="-0.07904084215347644"><ele>429.0</ele><time>2026-04-01T08:59:35Z</time></trkpt><trkpt lat="43.0022532776064" lon="-0.07900452280657776"><ele>430.0</ele><time>2026-04-01T08:59:36Z</time></trkpt><trkpt lat="43.0020408403287" lon="-0.07896426613010804"><ele>430.0</ele><time>2026-04-01T08:59:37Z</time></trkpt><trkpt lat="43.00182678893559" lon="-0.07891806828883043"><ele>430.0</ele><time>2026-04-01T08:59:38Z</time></trkpt><trkpt lat="43.001606112195105" lon="-0.0788532369810466"><ele>430.0</ele><time>2026-04-01T08:59:39Z</time></trkpt><trkpt lat="43.00137384677905" lon="-0.07875561627944848"><ele>427.5</ele><time>2026-04-01T08:59:40Z</time></trkpt><trkpt lat="43.00114876400786" lon="-0.07864476815871521"><ele>425.0</ele><time>2026-04-01T08:59:41Z</time></trkpt><trkpt lat="43.00092681745279" lon="-0.07852383980463894"><ele>425.0</ele><time>2026-04-01T08:59:42Z</time></trkpt><trkpt lat="43.00070544792804" lon="-0.0783969328909786"><ele>425.0</ele><time>2026-04-01T08:59:43Z</time></trkpt><trkpt lat="43.00048723371585" lon="-0.0782654019347522"><ele>425.0</ele><time>2026-04-01T08:59:44Z</time></trkpt><trkpt lat="43.00026700495516" lon="-0.07813616012355871"><ele>425.0</ele><time>2026-04-01T08:59:45Z</time></trkpt><trkpt lat="43.00005471150852" lon="-0.07800784104138514"><ele>425.0</ele><time>2026-04-01T08:59:46Z</time></trkpt><trkpt lat="42.999843952276876" lon="-0.07788165803339128"><ele>425.0</ele><time>2026-04-01T08:59:47Z</time></trkpt><trkpt lat="42.999626055357" lon="-0.07777386334699693"><ele>425.0</ele><time>2026-04-01T08:59:48Z</time></trkpt><trkpt lat="42.99940289604199" lon="-0.0776847418330909"><ele>425.0</ele><time>2026-04-01T08:59:49Z</time></trkpt><trkpt lat="42.99917659332842" lon="-0.0776122992916505"><ele>424.5</ele><time>2026-04-01T08:59:50Z</time></trkpt><trkpt lat="42.998951327556284" lon="-0.0775621753660747"><ele>424.0</ele><time>2026-04-01T08:59:51Z</time></trkpt><trkpt lat="42.99872719611529" lon="-0.07752746154723647"><ele>424.0</ele><time>2026-04-01T08:59:52Z</time></trkpt><trkpt lat="42.99851218401062" lon="-0.07751600028041082"><ele>424.0</ele><time>2026-04-01T08:59:53Z</time></trkpt><trkpt lat="42.99829566150803" lon="-0.07751862579140703"><ele>424.0</ele><time>2026-04-01T08:59:54Z</time></trkpt><trkpt lat="42.99808392185926" lon="-0.07752944187221686"><ele>424.0</ele><time>2026-04-01T08:59:55Z</time></trkpt><trkpt lat="42.997879276159225" lon="-0.07754106866413188"><ele>424.0</ele><time>2026-04-01T08:59:56Z</time></trkpt><trkpt lat="42.9976704254915" lon="-0.07754942457298561"><ele>424.0</ele><time>2026-04-01T08:59:57Z</time></trkpt><trkpt lat="42.99746437480949" lon="-0.07754742145982989"><ele>426.5</ele><time>2026-04-01T08:59:58Z</time></trkpt><trkpt lat="42.99724112301229" lon="-0.07754170861905323"><ele>429.0</ele><time>2026-04-01T08:59:59Z</time></trkpt><trkpt lat="42.99700799937692" lon="-0.07754345360290947"><ele>429.0</ele><time>2026-04-01T09:00:00Z</time></trkpt><trkpt lat="42.996780322205296" lon="-0.07755589126875152"><ele>429.0</ele><time>2026-04-01T09:00:01Z</time></trkpt><trkpt lat="42.9965513242316" lon="-0.0775674444296967"><ele>430.0</ele><time>2026-04-01T09:00:02Z</time></trkpt><trkpt lat="42.99632372249934" lon="-0.07757554736115281"><ele>431.0</ele><time>2026-04-01T09:00:03Z</time></trkpt><trkpt lat="42.99609349089026" lon="-0.07757937221817858"><ele>431.0</ele><time>2026-04-01T09:00:04Z</time></trkpt><trkpt lat="42.99585378610136" lon="-0.07756335928667601"><ele>431.0</ele><time>2026-04-01T09:00:05Z</time></trkpt><trkpt lat="42.99560885000759" lon="-0.0775203353963174"><ele>430.5</ele><time>2026-04-01T09:00:06Z</time></trkpt><trkpt lat="42.99536269648977" lon="-0.07745567271687874"><ele>430.0</ele><time>2026-04-01T09:00:07Z</time></trkpt><trkpt lat="42.9951279309143" lon="-0.0773795136120943"><ele>430.6666666666667</ele><time>2026-04-01T09:00:08Z</time></trkpt><trkpt lat="42.99490549387171" lon="-0.07729469936770053"><ele>431.33333333333337</ele><time>2026-04-01T09:00:09Z</time></trkpt><trkpt lat="42.99470690020274" lon="-0.07720117627878742"><ele>432.0</ele><time>2026-04-01T09:00:10Z</time></trkpt><trkpt lat="42.994514716328084" lon="-0.07709711233066699"><ele>432.0</ele><time>2026-04-01T09:00:11Z</time></trkpt><trkpt lat="42.99433764052179" lon="-0.07699323865273236"><ele>432.0</ele><time>2026-04-01T09:00:12Z</time></trkpt><trkpt lat="42.994175723177946" lon="-0.07690180266792923"><ele>432.0</ele><time>2026-04-01T09:00:13Z</time></trkpt><trkpt lat="42.99401936834066" lon="-0.07681503880456354"><ele>431.66666666666663</ele><time>2026-04-01T09:00:14Z</time></trkpt><trkpt lat="42.99385767552137" lon="-0.07672610151846831"><ele>431.3333333333333</ele><time>2026-04-01T09:00:15Z</time></trkpt><trkpt lat="42.99368851106885" lon="-0.07663029606384986"><ele>431.0</ele><time>2026-04-01T09:00:16Z</time></trkpt><trkpt lat="42.99351775794459" lon="-0.07652852405309679"><ele>431.0</ele><time>2026-04-01T09:00:17Z</time></trkpt><trkpt lat="42.99334461321811" lon="-0.07642109663314485"><ele>431.0</ele><time>2026-04-01T09:00:18Z</time></trkpt><trkpt lat="42.9931636616367" lon="-0.0763114699134154"><ele>431.0</ele><time>2026-04-01T09:00:19Z</time></trkpt><trkpt lat="42.99298222977592" lon="-0.07620156793296821"><ele>432.0</ele><time>2026-04-01T09:00:20Z</time></trkpt><trkpt lat="42.992778298747645" lon="-0.07608086401661328"><ele>433.0</ele><time>2026-04-01T09:00:21Z</time></trkpt><trkpt lat="42.99255963992921" lon="-0.0759532878411466"><ele>434.0</ele><time>2026-04-01T09:00:22Z</time></trkpt><trkpt lat="42.992327667305034" lon="-0.07581773001119596"><ele>435.0</ele><time>2026-04-01T09:00:23Z</time></trkpt><trkpt lat="42.992101413497906" lon="-0.0756720893127717"><ele>435.0</ele><time>2026-04-01T09:00:24Z</time></trkpt><trkpt lat="42.991882193406454" lon="-0.07551040417965818"><ele>435.0</ele><time>2026-04-01T09:00:25Z</time></trkpt><trkpt lat="42.9916665896163" lon="-0.07534411243090806"><ele>434.0</ele><time>2026-04-01T09:00:26Z</time></trkpt><trkpt lat="42.991453145064874" lon="-0.07517024193130961"><ele>433.0</ele><time>2026-04-01T09:00:27Z</time></trkpt><trkpt lat="42.99124502007796" lon="-0.07499868760508757"><ele>434.0</ele><time>2026-04-01T09:00:28Z</time></trkpt><trkpt lat="42.99103701354539" lon="-0.07482023533479275"><ele>435.0</ele><time>2026-04-01T09:00:29Z</time></trkpt><trkpt lat="42.9908325237718" lon="-0.07463247629634667"><ele>435.0</ele><time>2026-04-01T09:00:30Z</time></trkpt><trkpt lat="42.990630733208704" lon="-0.07444309548066298"><ele>435.0</ele><time>2026-04-01T09:00:31Z</time></trkpt><trkpt lat="42.990436246182185" lon="-0.07425354372516561"><ele>436.5</ele><time>2026-04-01T09:00:32Z</time></trkpt><trkpt lat="42.99024108557572" lon="-0.07406534566844801"><ele>438.0</ele><time>2026-04-01T09:00:33Z</time></trkpt><trkpt lat="42.99004200454381" lon="-0.07388023933801921"><ele>436.0</ele><time>2026-04-01T09:00:34Z</time></trkpt><trkpt lat="42.989839866783534" lon="-0.07369915718580214"><ele>434.0</ele><time>2026-04-01T09:00:35Z</time></trkpt><trkpt lat="42.98963582148158" lon="-0.07352846339027354"><ele>434.0</ele><time>2026-04-01T09:00:36Z</time></trkpt><trkpt lat="42.98942370127046" lon="-0.07337029769990086"><ele>434.0</ele><time>2026-04-01T09:00:37Z</time></trkpt><trkpt lat="42.98921040860168" lon="-0.0732278062131105"><ele>434.5</ele><time>2026-04-01T09:00:38Z</time></trkpt><trkpt lat="42.988992134111584" lon="-0.07310123724292657"><ele>435.0</ele><time>2026-04-01T09:00:39Z</time></trkpt><trkpt lat="42.988775508379796" lon="-0.0729902093679023"><ele>435.0</ele><time>2026-04-01T09:00:40Z</time></trkpt><trkpt lat="42.988553453463155" lon="-0.07289924744480981"><ele>435.0</ele><time>2026-04-01T09:00:41Z</time></trkpt><trkpt lat="42.98833112885627" lon="-0.07282423283570562"><ele>434.5</ele><time>2026-04-01T09:00:42Z</time></trkpt><trkpt lat="42.988108106386406" lon="-0.07276210299153908"><ele>434.0</ele><time>2026-04-01T09:00:43Z</time></trkpt><trkpt lat="42.987881551262454" lon="-0.07270578084105235"><ele>434.0</ele><time>2026-04-01T09:00:44Z</time></trkpt><trkpt lat="42.98765566574689" lon="-0.07264975697602172"><ele>434.0</ele><time>2026-04-01T09:00:45Z</time></trkpt><trkpt lat="42.98742207652084" lon="-0.07258139944594834"><ele>434.5</ele><time>2026-04-01T09:00:46Z</time></trkpt><trkpt lat="42.98718148999474" lon="-0.07250959904015707"><ele>435.0</ele><time>2026-04-01T09:00:47Z</time></trkpt><trkpt lat="42.986938202030636" lon="-0.07243942694049373"><ele>435.0</ele><time>2026-04-01T09:00:48Z</time></trkpt><trkpt lat="42.98669443822225" lon="-0.07236588315427397"><ele>435.0</ele><time>2026-04-01T09:00:49Z</time></trkpt><trkpt lat="42.986449770013046" lon="-0.07229204089236393"><ele>435.5</ele><time>2026-04-01T09:00:50Z</time></trkpt><trkpt lat="42.98620633710607" lon="-0.072219904927174"><ele>436.0</ele><time>2026-04-01T09:00:51Z</time></trkpt><trkpt lat="42.985964888833784" lon="-0.07215407053613078"><ele>437.0</ele><time>2026-04-01T09:00:52Z</time></trkpt><trkpt lat="42.985726962671976" lon="-0.07209041297586946"><ele>438.0</ele><time>2026-04-01T09:00:53Z</time></trkpt><trkpt lat="42.98549424919472" lon="-0.07202177063227644"><ele>438.0</ele><time>2026-04-01T09:00:54Z</time></trkpt><trkpt lat="42.985254125566776" lon="-0.07194715811938199"><ele>438.0</ele><time>2026-04-01T09:00:55Z</time></trkpt><trkpt lat="42.98500242876106" lon="-0.07187290057133244"><ele>438.0</ele><time>2026-04-01T09:00:56Z</time></trkpt><trkpt lat="42.98474964514932" lon="-0.07179665166258341"><ele>438.0</ele><time>2026-04-01T09:00:57Z</time></trkpt><trkpt lat="42.98450225695384" lon="-0.07171415840870335"><ele>438.0</ele><time>2026-04-01T09:00:58Z</time></trkpt><trkpt lat="42.984261489809846" lon="-0.07162378065592764"><ele>438.0</ele><time>2026-04-01T09:00:59Z</time></trkpt><trkpt lat="42.98402540618468" lon="-0.07152912228098865"><ele>439.5</ele><time>2026-04-01T09:01:00Z</time></trkpt><trkpt lat="42.983795850645954" lon="-0.07142998645212403"><ele>441.0</ele><time>2026-04-01T09:01:01Z</time></trkpt><trkpt lat="42.98357224975336" lon="-0.07133155432567985"><ele>441.0</ele><time>2026-04-01T09:01:02Z</time></trkpt><trkpt lat="42.983357196161364" lon="-0.0712385352395384"><ele>441.0</ele><time>2026-04-01T09:01:03Z</time></trkpt><trkpt lat="42.983154830806825" lon="-0.0711513029777453"><ele>441.0</ele><time>2026-04-01T09:01:04Z</time></trkpt><trkpt lat="42.982964873849866" lon="-0.07106678901308791"><ele>441.33333333333337</ele><time>2026-04-01T09:01:05Z</time></trkpt><trkpt lat="42.98278987400182" lon="-0.07098824185636131"><ele>441.6666666666667</ele><time>2026-04-01T09:01:06Z</time></trkpt><trkpt lat="42.982612941478386" lon="-0.07090759331948852"><ele>442.0</ele><time>2026-04-01T09:01:07Z</time></trkpt><trkpt lat="42.98242895679061" lon="-0.07082851136527078"><ele>441.33333333333337</ele><time>2026-04-01T09:01:08Z</time></trkpt><trkpt lat="42.98223997406293" lon="-0.07074902922988328"><ele>440.66666666666663</ele><time>2026-04-01T09:01:09Z</time></trkpt><trkpt lat="42.982057343251746" lon="-0.07066753835201399"><ele>440.0</ele><time>2026-04-01T09:01:10Z</time></trkpt><trkpt lat="42.98187594378523" lon="-0.07058243227234062"><ele>440.0</ele><time>2026-04-01T09:01:11Z</time></trkpt><trkpt lat="42.981696047099724" lon="-0.07049456697055681"><ele>440.0</ele><time>2026-04-01T09:01:12Z</time></trkpt><trkpt lat="42.98151816793805" lon="-0.0704099727212618"><ele>440.0</ele><time>2026-04-01T09:01:13Z</time></trkpt><trkpt lat="42.981345499612885" lon="-0.07032758317302143"><ele>439.75</ele><time>2026-04-01T09:01:14Z</time></trkpt><trkpt lat="42.98119092261652" lon="-0.07025709846815044"><ele>439.5</ele><time>2026-04-01T09:01:15Z</time></trkpt><trkpt lat="42.98106038855085" lon="-0.07020385336734344"><ele>439.25</ele><time>2026-04-01T09:01:16Z</time></trkpt><trkpt lat="42.9809359244071" lon="-0.07015301728198298"><ele>439.0</ele><time>2026-04-01T09:01:17Z</time></trkpt><trkpt lat="42.98081293059973" lon="-0.0701009944386541"><ele>440.0</ele><time>2026-04-01T09:01:18Z</time></trkpt><trkpt lat="42.98068675396117" lon="-0.07004592499522329"><ele>441.0</ele><time>2026-04-01T09:01:19Z</time></trkpt><trkpt lat="42.98056008000469" lon="-0.06999049650048837"><ele>442.0</ele><time>2026-04-01T09:01:20Z</time></trkpt><trkpt lat="42.980432111106474" lon="-0.06994019617557157"><ele>443.0</ele><time>2026-04-01T09:01:21Z</time></trkpt><trkpt lat="42.98030939176712" lon="-0.06989459025202746"><ele>443.0</ele><time>2026-04-01T09:01:22Z</time></trkpt><trkpt lat="42.98020471472494" lon="-0.06985519872320471"><ele>442.99999999999994</ele><time>2026-04-01T09:01:23Z</time></trkpt><trkpt lat="42.98011408108668" lon="-0.06982163911382969"><ele>442.99999999999994</ele><time>2026-04-01T09:01:24Z</time></trkpt><trkpt lat="42.98002189719191" lon="-0.06978267419204895"><ele>443.0</ele><time>2026-04-01T09:01:25Z</time></trkpt><trkpt lat="42.97992446293675" lon="-0.06973143789305013"><ele>443.0</ele><time>2026-04-01T09:01:26Z</time></trkpt><trkpt lat="42.97983090062796" lon="-0.06967312766596172"><ele>442.99999999999994</ele><time>2026-04-01T09:01:27Z</time></trkpt><trkpt lat="42.979752209990465" lon="-0.06962599211978267"><ele>443.0</ele><time>2026-04-01T09:01:28Z</time></trkpt><trkpt lat="42.979684534181466" lon="-0.06959209855274637"><ele>443.0</ele><time>2026-04-01T09:01:29Z</time></trkpt><trkpt lat="42.979607737590335" lon="-0.06955603804879593"><ele>443.0</ele><time>2026-04-01T09:01:30Z</time></trkpt><trkpt lat="42.97953391050978" lon="-0.06950586935311855"><ele>442.99999999999994</ele><time>2026-04-01T09:01:31Z</time></trkpt><trkpt lat="42.97948223150116" lon="-0.06943115301466948"><ele>443.0</ele><time>2026-04-01T09:01:32Z</time></trkpt><trkpt lat="42.979461097827304" lon="-0.06933822479459291"><ele>443.0</ele><time>2026-04-01T09:01:33Z</time></trkpt><trkpt lat="42.97949028322202" lon="-0.06918128478129099"><ele>442.99999999999994</ele><time>2026-04-01T09:01:35Z</time></trkpt><trkpt lat="42.97951881696685" lon="-0.06908847975408991"><ele>442.99999999999994</ele><time>2026-04-01T09:01:36Z</time></trkpt><trkpt lat="42.979544372221675" lon="-0.06895233442201003"><ele>443.0</ele><time>2026-04-01T09:01:37Z</time></trkpt><trkpt lat="42.979561389990764" lon="-0.06878867456284013"><ele>443.0</ele><time>2026-04-01T09:01:38Z</time></trkpt><trkpt lat="42.97956710083937" lon="-0.06863305670257312"><ele>442.79999999999995</ele><time>2026-04-01T09:01:39Z</time></trkpt><trkpt lat="42.979566377698205" lon="-0.06851365012438854"><ele>442.59999999999997</ele><time>2026-04-01T09:01:40Z</time></trkpt><trkpt lat="42.979565880350584" lon="-0.06842368304683218"><ele>442.40000000000003</ele><time>2026-04-01T09:01:41Z</time></trkpt><trkpt lat="42.97957404061545" lon="-0.06824740509919713"><ele>442.20000000000005</ele><time>2026-04-01T09:01:43Z</time></trkpt><trkpt lat="42.97958172530103" lon="-0.06811750064125054"><ele>442.0</ele><time>2026-04-01T09:01:44Z</time></trkpt><trkpt lat="42.979587473500324" lon="-0.06798725115515383"><ele>443.0</ele><time>2026-04-01T09:01:45Z</time></trkpt><trkpt lat="42.97958926355182" lon="-0.0678935494630795"><ele>444.0</ele><time>2026-04-01T09:01:46Z</time></trkpt><trkpt lat="42.97959010427915" lon="-0.06776724631202075"><ele>445.0</ele><time>2026-04-01T09:01:48Z</time></trkpt><trkpt lat="42.97953075098802" lon="-0.06752107153956789"><ele>446.0</ele><time>2026-04-01T09:01:53Z</time></trkpt><trkpt lat="42.97961128439859" lon="-0.06809042222370187"><ele>446.0</ele><time>2026-04-01T09:01:55Z</time></trkpt><trkpt lat="42.979614885297316" lon="-0.06822792686944737"><ele>446.0</ele><time>2026-04-01T09:01:57Z</time></trkpt><trkpt lat="42.979614868869035" lon="-0.06834836075863199"><ele>446.0</ele><time>2026-04-01T09:02:00Z</time></trkpt><trkpt lat="42.97953485651932" lon="-0.06839921317144272"><ele>446.0</ele><time>2026-04-01T09:02:08Z</time></trkpt><trkpt lat="42.97957856093013" lon="-0.06814372463513912"><ele>445.99999999999994</ele><time>2026-04-01T09:02:09Z</time></trkpt><trkpt lat="42.97958352593926" lon="-0.06803106629495799"><ele>446.0</ele><time>2026-04-01T09:02:10Z</time></trkpt><trkpt lat="42.97959094558695" lon="-0.06790475770010504"><ele>446.0</ele><time>2026-04-01T09:02:11Z</time></trkpt><trkpt lat="42.979596704081054" lon="-0.0677786505718293"><ele>446.0</ele><time>2026-04-01T09:02:12Z</time></trkpt><trkpt lat="42.97959931588273" lon="-0.06766739045357649"><ele>445.99999999999994</ele><time>2026-04-01T09:02:13Z</time></trkpt><trkpt lat="42.97959936790577" lon="-0.06757560475714165"><ele>446.0</ele><time>2026-04-01T09:02:14Z</time></trkpt><trkpt lat="42.97960353111254" lon="-0.06746368370362857"><ele>445.99999999999994</ele><time>2026-04-01T09:02:16Z</time></trkpt><trkpt lat="42.979497830119364" lon="-0.06748854975536438"><ele>446.0</ele><time>2026-04-01T09:02:19Z</time></trkpt><trkpt lat="42.979428339921725" lon="-0.06750374095479234"><ele>446.0</ele><time>2026-04-01T09:02:21Z</time></trkpt><trkpt lat="42.97936605923351" lon="-0.06752094025245346"><ele>446.0</ele><time>2026-04-01T09:02:23Z</time></trkpt><trkpt lat="42.97927661452145" lon="-0.0675490676526392"><ele>445.99999999999994</ele><time>2026-04-01T09:02:26Z</time></trkpt><trkpt lat="42.97921443942658" lon="-0.06757843239671742"><ele>446.0</ele><time>2026-04-01T09:02:29Z</time></trkpt><trkpt lat="42.979101458892444" lon="-0.06787984179277287"><ele>445.99999999999994</ele><time>2026-04-01T09:02:49Z</time></trkpt><trkpt lat="42.979196987400975" lon="-0.0679086897720049"><ele>446.0</ele><time>2026-04-01T09:02:50Z</time></trkpt><trkpt lat="42.97921784706593" lon="-0.06780523053925362"><ele>446.0</ele><time>2026-04-01T09:02:54Z</time></trkpt><trkpt lat="42.979253229663904" lon="-0.06772386418974642"><ele>446.0</ele><time>2026-04-01T09:03:46Z</time></trkpt><trkpt lat="42.97932148425233" lon="-0.06772524947736105"><ele>445.99999999999994</ele><time>2026-04-01T09:03:55Z</time></trkpt><trkpt lat="42.97925978972679" lon="-0.0677577233521965"><ele>446.0</ele><time>2026-04-01T09:04:39Z</time></trkpt><trkpt lat="42.979343591270556" lon="-0.06771079998219184"><ele>445.99999999999994</ele><time>2026-04-01T09:05:27Z</time></trkpt><trkpt lat="42.979314530889226" lon="-0.06779122848827146"><ele>446.0</ele><time>2026-04-01T09:06:16Z</time></trkpt><trkpt lat="42.97924616116135" lon="-0.06781013125576553"><ele>446.0</ele><time>2026-04-01T09:11:57Z</time></trkpt><trkpt lat="42.97934628586081" lon="-0.06780323991242594"><ele>446.0</ele><time>2026-04-01T09:15:55Z</time></trkpt><trkpt lat="42.97923783391854" lon="-0.06779589508235224"><ele>445.99999999999994</ele><time>2026-04-01T09:36:12Z</time></trkpt><trkpt lat="42.97930144673611" lon="-0.0677838448621348"><ele>446.0</ele><time>2026-04-01T09:37:27Z</time></trkpt><trkpt lat="42.97924161854248" lon="-0.06781869609316606"><ele>445.99999999999994</ele><time>2026-04-01T09:46:34Z</time></trkpt><trkpt lat="42.97919029967012" lon="-0.06776571405494658"><ele>446.0</ele><time>2026-04-01T09:57:39.999Z</time></trkpt><trkpt lat="42.979228556458416" lon="-0.06765722615147045"><ele>446.0</ele><time>2026-04-01T10:00:01.999Z</time></trkpt><trkpt lat="42.97924319037005" lon="-0.06756632344334396"><ele>446.0</ele><time>2026-04-01T10:00:03.999Z</time></trkpt><trkpt lat="42.979319091220134" lon="-0.0674627518424796"><ele>445.99999999999994</ele><time>2026-04-01T10:00:06.999Z</time></trkpt><trkpt lat="42.97941691414225" lon="-0.06745084691488654"><ele>446.0</ele><time>2026-04-01T10:00:08.999Z</time></trkpt><trkpt lat="42.97951269164864" lon="-0.06742699160662838"><ele>446.0</ele><time>2026-04-01T10:00:10.999Z</time></trkpt><trkpt lat="42.979579384336496" lon="-0.06741860910825818"><ele>446.0</ele><time>2026-04-01T10:00:13.999Z</time></trkpt><trkpt lat="42.979657815507856" lon="-0.06742643180397767"><ele>446.0</ele><time>2026-04-01T10:00:43Z</time></trkpt><trkpt lat="42.97974366468175" lon="-0.06744464623608365"><ele>446.0</ele><time>2026-04-01T10:00:44Z</time></trkpt><trkpt lat="42.97985734232964" lon="-0.06747755827075273"><ele>446.0</ele><time>2026-04-01T10:00:45Z</time></trkpt><trkpt lat="42.97997720774545" lon="-0.06750058392951955"><ele>446.75</ele><time>2026-04-01T10:00:46Z</time></trkpt><trkpt lat="42.98011589439903" lon="-0.0675151192443876"><ele>447.5</ele><time>2026-04-01T10:00:47Z</time></trkpt><trkpt lat="42.98025774466983" lon="-0.0675132852909608"><ele>448.25</ele><time>2026-04-01T10:00:48Z</time></trkpt><trkpt lat="42.980399988825255" lon="-0.0674814856696451"><ele>449.0</ele><time>2026-04-01T10:00:49Z</time></trkpt><trkpt lat="42.980536615473895" lon="-0.06744728720045318"><ele>449.75</ele><time>2026-04-01T10:00:50Z</time></trkpt><trkpt lat="42.980673702889206" lon="-0.06741973856050766"><ele>450.5</ele><time>2026-04-01T10:00:51Z</time></trkpt><trkpt lat="42.980806998105955" lon="-0.0674217058150461"><ele>451.25</ele><time>2026-04-01T10:00:52Z</time></trkpt><trkpt lat="42.9809396222809" lon="-0.0674617620322253"><ele>452.0</ele><time>2026-04-01T10:00:53Z</time></trkpt><trkpt lat="42.98106322900346" lon="-0.06752780971166397"><ele>452.0</ele><time>2026-04-01T10:00:54Z</time></trkpt><trkpt lat="42.981178547863635" lon="-0.0676071264566154"><ele>452.0</ele><time>2026-04-01T10:00:55Z</time></trkpt><trkpt lat="42.98129470374509" lon="-0.06768451641433786"><ele>452.0</ele><time>2026-04-01T10:00:56Z</time></trkpt><trkpt lat="42.98141395854357" lon="-0.06776476719228586"><ele>452.0</ele><time>2026-04-01T10:00:56.999Z</time></trkpt><trkpt lat="42.98152601574603" lon="-0.06784862563684564"><ele>452.0</ele><time>2026-04-01T10:00:57.999Z</time></trkpt><trkpt lat="42.981629780865255" lon="-0.06793227906772496"><ele>452.0</ele><time>2026-04-01T10:00:58.999Z</time></trkpt><trkpt lat="42.98174297361556" lon="-0.06800643175550534"><ele>452.0</ele><time>2026-04-01T10:00:59.999Z</time></trkpt><trkpt lat="42.981874440294526" lon="-0.06806283811103767"><ele>452.0</ele><time>2026-04-01T10:01:00.999Z</time></trkpt><trkpt lat="42.981998157203556" lon="-0.06809070794863689"><ele>450.75</ele><time>2026-04-01T10:01:01.999Z</time></trkpt><trkpt lat="42.98212633185171" lon="-0.06811474320681153"><ele>449.5</ele><time>2026-04-01T10:01:02.999Z</time></trkpt><trkpt lat="42.98227163609721" lon="-0.06815042018339662"><ele>448.25</ele><time>2026-04-01T10:01:03.999Z</time></trkpt><trkpt lat="42.98241940053389" lon="-0.06820494160539908"><ele>447.0</ele><time>2026-04-01T10:01:04.999Z</time></trkpt><trkpt lat="42.98255536003083" lon="-0.06827834272026644"><ele>447.0</ele><time>2026-04-01T10:01:05.999Z</time></trkpt><trkpt lat="42.982668256794256" lon="-0.0683687305330342"><ele>447.0</ele><time>2026-04-01T10:01:06.999Z</time></trkpt><trkpt lat="42.98276945791809" lon="-0.06847109316260704"><ele>447.0</ele><time>2026-04-01T10:01:07.999Z</time></trkpt><trkpt lat="42.98287636263961" lon="-0.06858705761851346"><ele>447.0</ele><time>2026-04-01T10:01:08.999Z</time></trkpt><trkpt lat="42.982990851358394" lon="-0.06871046144211512"><ele>447.0</ele><time>2026-04-01T10:01:09.999Z</time></trkpt><trkpt lat="42.98310819344641" lon="-0.06884034216899944"><ele>447.0</ele><time>2026-04-01T10:01:10.999Z</time></trkpt><trkpt lat="42.98322148758932" lon="-0.06897318817712829"><ele>447.0</ele><time>2026-04-01T10:01:11.999Z</time></trkpt><trkpt lat="42.98332728745746" lon="-0.06910850669858327"><ele>447.0</ele><time>2026-04-01T10:01:12.999Z</time></trkpt><trkpt lat="42.98343472471381" lon="-0.06924634304688737"><ele>444.75</ele><time>2026-04-01T10:01:13.999Z</time></trkpt><trkpt lat="42.9835437031856" lon="-0.06937989122180016"><ele>442.5</ele><time>2026-04-01T10:01:14.999Z</time></trkpt><trkpt lat="42.98365844639098" lon="-0.06949887781652288"><ele>440.25</ele><time>2026-04-01T10:01:15.999Z</time></trkpt><trkpt lat="42.98379002380941" lon="-0.06960679520219414"><ele>438.0</ele><time>2026-04-01T10:01:16.999Z</time></trkpt><trkpt lat="42.98392901037469" lon="-0.06969612502750792"><ele>438.0</ele><time>2026-04-01T10:01:17.999Z</time></trkpt><trkpt lat="42.984065709532075" lon="-0.06977560947879688"><ele>438.0</ele><time>2026-04-01T10:01:18.999Z</time></trkpt><trkpt lat="42.984202394918334" lon="-0.06985086485089576"><ele>438.0</ele><time>2026-04-01T10:01:19.999Z</time></trkpt><trkpt lat="42.9843373818502" lon="-0.06992332632836576"><ele>438.0</ele><time>2026-04-01T10:01:20.999Z</time></trkpt><trkpt lat="42.98447206216239" lon="-0.06999891273856446"><ele>437.66666666666663</ele><time>2026-04-01T10:01:21.999Z</time></trkpt><trkpt lat="42.98461136442806" lon="-0.07007798876539939"><ele>437.3333333333333</ele><time>2026-04-01T10:01:22.999Z</time></trkpt><trkpt lat="42.984751260981476" lon="-0.07015184658491674"><ele>437.0</ele><time>2026-04-01T10:01:23.999Z</time></trkpt><trkpt lat="42.98489795193285" lon="-0.07022064018961345"><ele>437.66666666666663</ele><time>2026-04-01T10:01:24.999Z</time></trkpt><trkpt lat="42.9850491309947" lon="-0.0702777513144819"><ele>438.33333333333337</ele><time>2026-04-01T10:01:25.999Z</time></trkpt><trkpt lat="42.9852023364109" lon="-0.07032306051617897"><ele>439.0</ele><time>2026-04-01T10:01:26.999Z</time></trkpt><trkpt lat="42.98535061776865" lon="-0.07036553278970167"><ele>439.0</ele><time>2026-04-01T10:01:27.999Z</time></trkpt><trkpt lat="42.98550042467619" lon="-0.07040823241285006"><ele>439.0</ele><time>2026-04-01T10:01:28.999Z</time></trkpt><trkpt lat="42.98565289249769" lon="-0.07044954049911263"><ele>439.0</ele><time>2026-04-01T10:01:29.999Z</time></trkpt><trkpt lat="42.98580270942364" lon="-0.07049349682092565"><ele>439.0</ele><time>2026-04-01T10:01:30.999Z</time></trkpt><trkpt lat="42.985956626910486" lon="-0.07053089415525832"><ele>439.0</ele><time>2026-04-01T10:01:31.999Z</time></trkpt><trkpt lat="42.98611349514855" lon="-0.07055385676531471"><ele>439.0</ele><time>2026-04-01T10:01:32.999Z</time></trkpt><trkpt lat="42.986276208030446" lon="-0.07056977103447"><ele>439.0</ele><time>2026-04-01T10:01:33.999Z</time></trkpt><trkpt lat="42.986432950031556" lon="-0.07056214902069825"><ele>439.0</ele><time>2026-04-01T10:01:34.999Z</time></trkpt><trkpt lat="42.986600307648786" lon="-0.07053348079994333"><ele>439.0</ele><time>2026-04-01T10:01:35.999Z</time></trkpt><trkpt lat="42.98676640761761" lon="-0.0704936489323957"><ele>439.6666666666667</ele><time>2026-04-01T10:01:36.999Z</time></trkpt><trkpt lat="42.98693620930001" lon="-0.07045671230126765"><ele>440.33333333333337</ele><time>2026-04-01T10:01:37.999Z</time></trkpt><trkpt lat="42.987102821367124" lon="-0.07043012462016057"><ele>441.0</ele><time>2026-04-01T10:01:38.999Z</time></trkpt><trkpt lat="42.98727137666579" lon="-0.07041646206985983"><ele>441.0</ele><time>2026-04-01T10:01:39.999Z</time></trkpt><trkpt lat="42.987438649857985" lon="-0.07040496194270736"><ele>441.0</ele><time>2026-04-01T10:01:40.999Z</time></trkpt><trkpt lat="42.98760171972405" lon="-0.07038904874452934"><ele>441.0</ele><time>2026-04-01T10:01:41.999Z</time></trkpt><trkpt lat="42.98776621883682" lon="-0.07037082073033257"><ele>440.33333333333337</ele><time>2026-04-01T10:01:42.999Z</time></trkpt><trkpt lat="42.98793099663812" lon="-0.07035225214294746"><ele>439.6666666666667</ele><time>2026-04-01T10:01:43.999Z</time></trkpt><trkpt lat="42.9880968769452" lon="-0.07033844618125897"><ele>439.0</ele><time>2026-04-01T10:01:44.999Z</time></trkpt><trkpt lat="42.98826135902245" lon="-0.07033277976081297"><ele>438.6666666666667</ele><time>2026-04-01T10:01:45.999Z</time></trkpt><trkpt lat="42.98842639346839" lon="-0.07034272007435577"><ele>438.33333333333337</ele><time>2026-04-01T10:01:46.999Z</time></trkpt><trkpt lat="42.9885952685488" lon="-0.07037062007249414"><ele>438.0</ele><time>2026-04-01T10:01:47.999Z</time></trkpt><trkpt lat="42.988756152118825" lon="-0.0703923389624829"><ele>438.0</ele><time>2026-04-01T10:01:48.999Z</time></trkpt><trkpt lat="42.98892684032036" lon="-0.07041722554314978"><ele>438.0</ele><time>2026-04-01T10:01:49.999Z</time></trkpt><trkpt lat="42.989095340005214" lon="-0.07044473519926878"><ele>438.0</ele><time>2026-04-01T10:01:50.999Z</time></trkpt><trkpt lat="42.989258508424754" lon="-0.0704850342816556"><ele>437.66666666666663</ele><time>2026-04-01T10:01:51.999Z</time></trkpt><trkpt lat="42.989420799568194" lon="-0.07054491431728875"><ele>437.3333333333333</ele><time>2026-04-01T10:01:52.999Z</time></trkpt><trkpt lat="42.98958326520805" lon="-0.07061940094247728"><ele>437.0</ele><time>2026-04-01T10:01:53.999Z</time></trkpt><trkpt lat="42.9897371705879" lon="-0.07069760346765208"><ele>437.0</ele><time>2026-04-01T10:01:54.999Z</time></trkpt><trkpt lat="42.989888391669545" lon="-0.07077204678046009"><ele>437.0</ele><time>2026-04-01T10:01:55.999Z</time></trkpt><trkpt lat="42.99003573423643" lon="-0.07085039475957998"><ele>437.0</ele><time>2026-04-01T10:01:56.999Z</time></trkpt><trkpt lat="42.9901848065787" lon="-0.07093154753015667"><ele>438.0</ele><time>2026-04-01T10:01:57.999Z</time></trkpt><trkpt lat="42.990332831433" lon="-0.07101290626496545"><ele>439.0</ele><time>2026-04-01T10:01:58.999Z</time></trkpt><trkpt lat="42.99048509892579" lon="-0.07110473256582153"><ele>440.0</ele><time>2026-04-01T10:01:59.999Z</time></trkpt><trkpt lat="42.99062020184212" lon="-0.07119608839488685"><ele>440.0</ele><time>2026-04-01T10:02:00.999Z</time></trkpt><trkpt lat="42.990738242374455" lon="-0.07127534714483091"><ele>440.0</ele><time>2026-04-01T10:02:01.999Z</time></trkpt><trkpt lat="42.99086127364777" lon="-0.07135224788279214"><ele>440.0</ele><time>2026-04-01T10:02:02.999Z</time></trkpt><trkpt lat="42.99099861935653" lon="-0.071421691213705"><ele>440.0</ele><time>2026-04-01T10:02:03.999Z</time></trkpt><trkpt lat="42.99114033697471" lon="-0.07147186902427527"><ele>443.3333333333333</ele><time>2026-04-01T10:02:04.999Z</time></trkpt><trkpt lat="42.991289351897606" lon="-0.07151581698232276"><ele>446.66666666666663</ele><time>2026-04-01T10:02:05.999Z</time></trkpt><trkpt lat="42.99143696164294" lon="-0.07155228765205277"><ele>450.0</ele><time>2026-04-01T10:02:06.999Z</time></trkpt><trkpt lat="42.99159125411322" lon="-0.07158361539876726"><ele>450.0</ele><time>2026-04-01T10:02:07.999Z</time></trkpt><trkpt lat="42.9917429239931" lon="-0.07162382974863386"><ele>450.0</ele><time>2026-04-01T10:02:08.999Z</time></trkpt><trkpt lat="42.99189843839195" lon="-0.07164828712033544"><ele>450.0</ele><time>2026-04-01T10:02:09.999Z</time></trkpt><trkpt lat="42.99205238491725" lon="-0.07166191420633021"><ele>450.0</ele><time>2026-04-01T10:02:10.999Z</time></trkpt><trkpt lat="42.99220389125115" lon="-0.07166305360958938"><ele>450.0</ele><time>2026-04-01T10:02:11.999Z</time></trkpt><trkpt lat="42.99235047779624" lon="-0.07164884554734448"><ele>450.0</ele><time>2026-04-01T10:02:12.999Z</time></trkpt><trkpt lat="42.992488753894214" lon="-0.07164054669386175"><ele>450.0</ele><time>2026-04-01T10:02:13.999Z</time></trkpt><trkpt lat="42.9926113146799" lon="-0.07163518192420001"><ele>451.4</ele><time>2026-04-01T10:02:14.999Z</time></trkpt><trkpt lat="42.99271324363184" lon="-0.07163124457514979"><ele>452.8</ele><time>2026-04-01T10:02:15.999Z</time></trkpt><trkpt lat="42.992782536461064" lon="-0.07161015635469645"><ele>454.20000000000005</ele><time>2026-04-01T10:02:16.999Z</time></trkpt><trkpt lat="42.99283575078522" lon="-0.07156170489005337"><ele>455.6</ele><time>2026-04-01T10:02:17.999Z</time></trkpt><trkpt lat="42.9929168018019" lon="-0.07141670097777955"><ele>457.0</ele><time>2026-04-01T10:02:19.999Z</time></trkpt><trkpt lat="42.992982126291636" lon="-0.07130581827513287"><ele>458.20000000000005</ele><time>2026-04-01T10:02:20.999Z</time></trkpt><trkpt lat="42.99305788365335" lon="-0.07118084245035061"><ele>459.40000000000003</ele><time>2026-04-01T10:02:21.999Z</time></trkpt><trkpt lat="42.99313597358522" lon="-0.07105705055570817"><ele>460.59999999999997</ele><time>2026-04-01T10:02:22.999Z</time></trkpt><trkpt lat="42.993196165715624" lon="-0.07095203517176188"><ele>461.79999999999995</ele><time>2026-04-01T10:02:23.999Z</time></trkpt><trkpt lat="42.99324183245079" lon="-0.0708694089236174"><ele>463.0</ele><time>2026-04-01T10:02:24.999Z</time></trkpt><trkpt lat="42.99327636414002" lon="-0.07076859864022922"><ele>463.50000000000006</ele><time>2026-04-01T10:02:25.999Z</time></trkpt><trkpt lat="42.9932660967693" lon="-0.070655409580863"><ele>464.0</ele><time>2026-04-01T10:02:26.999Z</time></trkpt><trkpt lat="42.99327843943278" lon="-0.07053943759206907"><ele>464.5</ele><time>2026-04-01T10:02:27.999Z</time></trkpt><trkpt lat="42.993293268610046" lon="-0.07043043920160501"><ele>465.0</ele><time>2026-04-01T10:02:28.999Z</time></trkpt><trkpt lat="42.993310382207966" lon="-0.07031874001084154"><ele>465.50000000000006</ele><time>2026-04-01T10:02:29.999Z</time></trkpt><trkpt lat="42.99333241574093" lon="-0.0702046091040593"><ele>466.0</ele><time>2026-04-01T10:02:30.999Z</time></trkpt><trkpt lat="42.99335871650516" lon="-0.07008648734284521"><ele>466.0</ele><time>2026-04-01T10:02:31.999Z</time></trkpt><trkpt lat="42.993390142385195" lon="-0.06996913944412529"><ele>466.0</ele><time>2026-04-01T10:02:32.999Z</time></trkpt><trkpt lat="42.993429361368236" lon="-0.06985355316452055"><ele>466.0</ele><time>2026-04-01T10:02:33.999Z</time></trkpt><trkpt lat="42.9934844499698" lon="-0.06974734741184287"><ele>466.0</ele><time>2026-04-01T10:02:34.999Z</time></trkpt><trkpt lat="42.99355794262246" lon="-0.06965858663079294"><ele>466.0</ele><time>2026-04-01T10:02:35.999Z</time></trkpt><trkpt lat="42.99364628190971" lon="-0.06959999419528214"><ele>467.0</ele><time>2026-04-01T10:02:36.999Z</time></trkpt><trkpt lat="42.99373047476603" lon="-0.0695187670819748"><ele>468.0</ele><time>2026-04-01T10:02:37.999Z</time></trkpt><trkpt lat="42.99384428202538" lon="-0.06945162671218702"><ele>469.0</ele><time>2026-04-01T10:02:38.999Z</time></trkpt><trkpt lat="42.993965762656785" lon="-0.06939797313846083"><ele>470.0</ele><time>2026-04-01T10:02:39.999Z</time></trkpt><trkpt lat="42.994102702113004" lon="-0.0693717698306995"><ele>470.75</ele><time>2026-04-01T10:02:40.999Z</time></trkpt><trkpt lat="42.994225136198665" lon="-0.06933896114911381"><ele>471.5</ele><time>2026-04-01T10:02:41.999Z</time></trkpt><trkpt lat="42.99435289160506" lon="-0.06931654370656277"><ele>472.25</ele><time>2026-04-01T10:02:42.999Z</time></trkpt><trkpt lat="42.994480981876976" lon="-0.06929586278704346"><ele>473.0</ele><time>2026-04-01T10:02:43.999Z</time></trkpt><trkpt lat="42.994601142144184" lon="-0.06927507044953779"><ele>473.0</ele><time>2026-04-01T10:02:44.999Z</time></trkpt><trkpt lat="42.99471812771235" lon="-0.06925716519168944"><ele>473.0</ele><time>2026-04-01T10:02:45.999Z</time></trkpt><trkpt lat="42.99485741613699" lon="-0.06920679899656965"><ele>473.0</ele><time>2026-04-01T10:02:46.999Z</time></trkpt><trkpt lat="42.994976926735376" lon="-0.0691675770304007"><ele>473.0</ele><time>2026-04-01T10:02:47.999Z</time></trkpt><trkpt lat="42.9950822623294" lon="-0.06912397346531297"><ele>474.5</ele><time>2026-04-01T10:02:48.999Z</time></trkpt><trkpt lat="42.99517419448578" lon="-0.06907267332589358"><ele>476.0</ele><time>2026-04-01T10:02:49.999Z</time></trkpt><trkpt lat="42.9952766371804" lon="-0.06899339590819085"><ele>477.5</ele><time>2026-04-01T10:02:50.999Z</time></trkpt><trkpt lat="42.995390946242914" lon="-0.06889596851777652"><ele>479.0</ele><time>2026-04-01T10:02:51.999Z</time></trkpt><trkpt lat="42.99551406053148" lon="-0.06881758741735897"><ele>479.0</ele><time>2026-04-01T10:02:52.999Z</time></trkpt><trkpt lat="42.99563482157211" lon="-0.06871539328156022"><ele>479.0</ele><time>2026-04-01T10:02:53.999Z</time></trkpt><trkpt lat="42.995760684102144" lon="-0.06862188653792142"><ele>479.0</ele><time>2026-04-01T10:02:54.999Z</time></trkpt><trkpt lat="42.99586823177749" lon="-0.06853117408461551"><ele>479.0</ele><time>2026-04-01T10:02:55.999Z</time></trkpt><trkpt lat="42.995971290967105" lon="-0.06847767794275145"><ele>478.75</ele><time>2026-04-01T10:02:56.999Z</time></trkpt><trkpt lat="42.99607420852235" lon="-0.0684561423015852"><ele>478.5</ele><time>2026-04-01T10:02:57.999Z</time></trkpt><trkpt lat="42.99617780987642" lon="-0.06847354385758815"><ele>478.25</ele><time>2026-04-01T10:02:58.999Z</time></trkpt><trkpt lat="42.996290770108736" lon="-0.06852658445205799"><ele>478.0</ele><time>2026-04-01T10:02:59.999Z</time></trkpt><trkpt lat="42.99639785916257" lon="-0.06861679216914952"><ele>478.0</ele><time>2026-04-01T10:03:00.999Z</time></trkpt><trkpt lat="42.99649502596862" lon="-0.06874185190548701"><ele>478.0</ele><time>2026-04-01T10:03:01.999Z</time></trkpt><trkpt lat="42.996593960832755" lon="-0.06887984649428162"><ele>478.0</ele><time>2026-04-01T10:03:02.999Z</time></trkpt><trkpt lat="42.99669818576502" lon="-0.06901673234350589"><ele>478.0</ele><time>2026-04-01T10:03:03.999Z</time></trkpt><trkpt lat="42.996811146475935" lon="-0.06915220896466627"><ele>475.0</ele><time>2026-04-01T10:03:04.999Z</time></trkpt><trkpt lat="42.99692604266262" lon="-0.06929090041726442"><ele>472.0</ele><time>2026-04-01T10:03:05.999Z</time></trkpt><trkpt lat="42.99704105410701" lon="-0.0694290349463683"><ele>469.0</ele><time>2026-04-01T10:03:06.999Z</time></trkpt><trkpt lat="42.997158964987754" lon="-0.06956524556888051"><ele>469.0</ele><time>2026-04-01T10:03:07.999Z</time></trkpt><trkpt lat="42.997299974860994" lon="-0.06968350993909643"><ele>469.0</ele><time>2026-04-01T10:03:08.999Z</time></trkpt><trkpt lat="42.997462892093125" lon="-0.06975699023076186"><ele>469.0</ele><time>2026-04-01T10:03:09.999Z</time></trkpt><trkpt lat="42.99761368571972" lon="-0.06983685101889124"><ele>471.0</ele><time>2026-04-01T10:03:10.999Z</time></trkpt><trkpt lat="42.99778183155296" lon="-0.06989410043654724"><ele>473.0</ele><time>2026-04-01T10:03:11.999Z</time></trkpt><trkpt lat="42.99793906453048" lon="-0.06993826388883566"><ele>475.0</ele><time>2026-04-01T10:03:12.999Z</time></trkpt><trkpt lat="42.99809558330528" lon="-0.0699649441645979"><ele>470.6666666666667</ele><time>2026-04-01T10:03:13.999Z</time></trkpt><trkpt lat="42.99825380294194" lon="-0.06997670661732872"><ele>466.33333333333337</ele><time>2026-04-01T10:03:14.999Z</time></trkpt><trkpt lat="42.99841159818089" lon="-0.06998685544377202"><ele>462.0</ele><time>2026-04-01T10:03:15.999Z</time></trkpt><trkpt lat="42.99857520135376" lon="-0.07000499630488419"><ele>461.33333333333337</ele><time>2026-04-01T10:03:16.999Z</time></trkpt><trkpt lat="42.998745491919635" lon="-0.07002344465072846"><ele>460.6666666666667</ele><time>2026-04-01T10:03:17.999Z</time></trkpt><trkpt lat="42.998901400221555" lon="-0.07004482680657621"><ele>460.0</ele><time>2026-04-01T10:03:18.999Z</time></trkpt><trkpt lat="42.99905545532853" lon="-0.07006517722791168"><ele>460.25</ele><time>2026-04-01T10:03:19.999Z</time></trkpt><trkpt lat="42.99919739957276" lon="-0.0700828009052559"><ele>460.5</ele><time>2026-04-01T10:03:20.999Z</time></trkpt><trkpt lat="42.99933815865655" lon="-0.07009865344641596"><ele>460.75</ele><time>2026-04-01T10:03:21.999Z</time></trkpt><trkpt lat="42.99947557542771" lon="-0.07011007700036152"><ele>461.0</ele><time>2026-04-01T10:03:22.999Z</time></trkpt><trkpt lat="42.99961647526235" lon="-0.07010886289537362"><ele>461.0</ele><time>2026-04-01T10:03:23.999Z</time></trkpt><trkpt lat="42.999768344292725" lon="-0.07008149512968377"><ele>461.0</ele><time>2026-04-01T10:03:24.999Z</time></trkpt><trkpt lat="42.99992642663903" lon="-0.07002731074734118"><ele>461.0</ele><time>2026-04-01T10:03:25.999Z</time></trkpt><trkpt lat="43.000080502780385" lon="-0.06995571385102647"><ele>462.0</ele><time>2026-04-01T10:03:26.999Z</time></trkpt><trkpt lat="43.00022298131467" lon="-0.0698828334709609"><ele>463.0</ele><time>2026-04-01T10:03:27.999Z</time></trkpt><trkpt lat="43.00036479520186" lon="-0.06981303094203296"><ele>464.0</ele><time>2026-04-01T10:03:28.999Z</time></trkpt><trkpt lat="43.00050167282368" lon="-0.06975084373161008"><ele>465.0</ele><time>2026-04-01T10:03:29.999Z</time></trkpt><trkpt lat="43.00062818844494" lon="-0.06969805152776375"><ele>465.0</ele><time>2026-04-01T10:03:30.999Z</time></trkpt><trkpt lat="43.00074904222165" lon="-0.0696517224524503"><ele>465.0</ele><time>2026-04-01T10:03:31.999Z</time></trkpt><trkpt lat="43.00085796149472" lon="-0.06961116934080652"><ele>465.0</ele><time>2026-04-01T10:03:32.999Z</time></trkpt><trkpt lat="43.000957716261645" lon="-0.06956871472978633"><ele>465.0</ele><time>2026-04-01T10:03:33.999Z</time></trkpt><trkpt lat="43.00104426579922" lon="-0.06953994508537405"><ele>465.0</ele><time>2026-04-01T10:03:34.999Z</time></trkpt><trkpt lat="43.00112503670243" lon="-0.0695211581509554"><ele>463.5</ele><time>2026-04-01T10:03:35.999Z</time></trkpt><trkpt lat="43.00120677927281" lon="-0.06951309672154604"><ele>462.0</ele><time>2026-04-01T10:03:36.999Z</time></trkpt><trkpt lat="43.00129569592959" lon="-0.06956381884966506"><ele>460.5</ele><time>2026-04-01T10:03:37.999Z</time></trkpt><trkpt lat="43.00142367345742" lon="-0.06943780807563901"><ele>459.0</ele><time>2026-04-01T10:03:38.999Z</time></trkpt><trkpt lat="43.0015601780661" lon="-0.06937447225737825"><ele>458.33333333333337</ele><time>2026-04-01T10:03:39.999Z</time></trkpt><trkpt lat="43.00171593201964" lon="-0.06931376704446078"><ele>457.6666666666667</ele><time>2026-04-01T10:03:40.999Z</time></trkpt><trkpt lat="43.00187548034911" lon="-0.06925886994314367"><ele>457.0</ele><time>2026-04-01T10:03:41.999Z</time></trkpt><trkpt lat="43.00203843064001" lon="-0.06920345310273161"><ele>457.0</ele><time>2026-04-01T10:03:42.999Z</time></trkpt><trkpt lat="43.00219259954826" lon="-0.06914763084048445"><ele>457.0</ele><time>2026-04-01T10:03:43.999Z</time></trkpt><trkpt lat="43.002346947856054" lon="-0.06909267518360993"><ele>457.0</ele><time>2026-04-01T10:03:44.999Z</time></trkpt><trkpt lat="43.00249534363233" lon="-0.0690416805693231"><ele>459.0</ele><time>2026-04-01T10:03:45.999Z</time></trkpt><trkpt lat="43.002645033294" lon="-0.06899470528059516"><ele>461.0</ele><time>2026-04-01T10:03:46.999Z</time></trkpt><trkpt lat="43.0027948497898" lon="-0.06894804787382011"><ele>463.0</ele><time>2026-04-01T10:03:47.999Z</time></trkpt><trkpt lat="43.00294130320875" lon="-0.06889798691921376"><ele>463.0</ele><time>2026-04-01T10:03:48.999Z</time></trkpt><trkpt lat="43.00309192520048" lon="-0.06884649038573178"><ele>463.0</ele><time>2026-04-01T10:03:49.999Z</time></trkpt><trkpt lat="43.00325183352872" lon="-0.0687976025617266"><ele>463.0</ele><time>2026-04-01T10:03:50.999Z</time></trkpt><trkpt lat="43.003399045144235" lon="-0.0687544970688307"><ele>463.33333333333337</ele><time>2026-04-01T10:03:51.999Z</time></trkpt><trkpt lat="43.003563769558085" lon="-0.06871226120317507"><ele>463.66666666666663</ele><time>2026-04-01T10:03:52.999Z</time></trkpt><trkpt lat="43.003722651681194" lon="-0.06867516878872355"><ele>464.0</ele><time>2026-04-01T10:03:53.999Z</time></trkpt><trkpt lat="43.00388710295536" lon="-0.06863531316003374"><ele>464.0</ele><time>2026-04-01T10:03:54.999Z</time></trkpt><trkpt lat="43.00405266630164" lon="-0.06859437308124074"><ele>464.0</ele><time>2026-04-01T10:03:55.999Z</time></trkpt><trkpt lat="43.00422045216672" lon="-0.06855202616184311"><ele>464.0</ele><time>2026-04-01T10:03:56.999Z</time></trkpt><trkpt lat="43.004380079348536" lon="-0.06851269035684583"><ele>464.66666666666663</ele><time>2026-04-01T10:03:57.999Z</time></trkpt><trkpt lat="43.00454752462865" lon="-0.0684697054835105"><ele>465.33333333333337</ele><time>2026-04-01T10:03:58.999Z</time></trkpt><trkpt lat="43.00471565740863" lon="-0.06842716796536658"><ele>466.0</ele><time>2026-04-01T10:03:59.999Z</time></trkpt><trkpt lat="43.004879540137196" lon="-0.06838665814515545"><ele>466.6666666666667</ele><time>2026-04-01T10:04:00.999Z</time></trkpt><trkpt lat="43.005042109503066" lon="-0.06834402658484028"><ele>467.33333333333337</ele><time>2026-04-01T10:04:01.999Z</time></trkpt><trkpt lat="43.00521054279251" lon="-0.06830320742823794"><ele>468.0</ele><time>2026-04-01T10:04:02.999Z</time></trkpt><trkpt lat="43.00537904147013" lon="-0.06826399239772908"><ele>469.0</ele><time>2026-04-01T10:04:03.999Z</time></trkpt><trkpt lat="43.00555114894157" lon="-0.06822071337306539"><ele>470.0</ele><time>2026-04-01T10:04:04.999Z</time></trkpt><trkpt lat="43.0057214646075" lon="-0.06817740916432058"><ele>471.0</ele><time>2026-04-01T10:04:05.999Z</time></trkpt><trkpt lat="43.00588986776648" lon="-0.06813621322615855"><ele>471.0</ele><time>2026-04-01T10:04:06.999Z</time></trkpt><trkpt lat="43.006048407858074" lon="-0.06809905893031472"><ele>471.0</ele><time>2026-04-01T10:04:07.999Z</time></trkpt><trkpt lat="43.006194991584" lon="-0.0680579482645926"><ele>471.0</ele><time>2026-04-01T10:04:08.999Z</time></trkpt><trkpt lat="43.006343249998146" lon="-0.06801856804139678"><ele>471.0</ele><time>2026-04-01T10:04:09.999Z</time></trkpt><trkpt lat="43.00649681002786" lon="-0.06797439223891863"><ele>471.0</ele><time>2026-04-01T10:04:10.999Z</time></trkpt><trkpt lat="43.00666547702378" lon="-0.06792754214149739"><ele>471.0</ele><time>2026-04-01T10:04:11.999Z</time></trkpt><trkpt lat="43.00682672714023" lon="-0.0678841731137439"><ele>471.75</ele><time>2026-04-01T10:04:12.999Z</time></trkpt><trkpt lat="43.00697973745003" lon="-0.06783892223647191"><ele>472.5</ele><time>2026-04-01T10:04:13.999Z</time></trkpt><trkpt lat="43.00711873712301" lon="-0.06777150798425666"><ele>473.25</ele><time>2026-04-01T10:04:14.999Z</time></trkpt><trkpt lat="43.00725419665417" lon="-0.06770936390669766"><ele>474.0</ele><time>2026-04-01T10:04:15.999Z</time></trkpt><trkpt lat="43.007410705839206" lon="-0.06766058676882857"><ele>474.0</ele><time>2026-04-01T10:04:16.999Z</time></trkpt><trkpt lat="43.00756668836699" lon="-0.06758879740465726"><ele>474.0</ele><time>2026-04-01T10:04:17.999Z</time></trkpt><trkpt lat="43.00772504485225" lon="-0.06751365876294002"><ele>474.0</ele><time>2026-04-01T10:04:18.999Z</time></trkpt><trkpt lat="43.00787947407743" lon="-0.06744207088180619"><ele>474.0</ele><time>2026-04-01T10:04:19.999Z</time></trkpt><trkpt lat="43.00803540564544" lon="-0.06737008056350748"><ele>474.0</ele><time>2026-04-01T10:04:20.999Z</time></trkpt><trkpt lat="43.00818976491838" lon="-0.06730031963300649"><ele>474.0</ele><time>2026-04-01T10:04:21.999Z</time></trkpt><trkpt lat="43.008341217720094" lon="-0.06723196231090706"><ele>470.33333333333337</ele><time>2026-04-01T10:04:22.999Z</time></trkpt><trkpt lat="43.008492672291624" lon="-0.06716539597700327"><ele>466.6666666666667</ele><time>2026-04-01T10:04:23.999Z</time></trkpt><trkpt lat="43.00864347211375" lon="-0.06709830955144501"><ele>463.0</ele><time>2026-04-01T10:04:24.999Z</time></trkpt><trkpt lat="43.008797936860454" lon="-0.06703319619802721"><ele>463.0</ele><time>2026-04-01T10:04:25.999Z</time></trkpt><trkpt lat="43.008952252240874" lon="-0.06696895130546891"><ele>463.0</ele><time>2026-04-01T10:04:26.999Z</time></trkpt><trkpt lat="43.00912563374061" lon="-0.06690194011516802"><ele>463.0</ele><time>2026-04-01T10:04:27.999Z</time></trkpt><trkpt lat="43.009280608250606" lon="-0.0668499005575136"><ele>462.33333333333337</ele><time>2026-04-01T10:04:28.999Z</time></trkpt><trkpt lat="43.00944076053221" lon="-0.06680372767802856"><ele>461.66666666666663</ele><time>2026-04-01T10:04:29.999Z</time></trkpt><trkpt lat="43.00960602379488" lon="-0.06677094295184419"><ele>461.0</ele><time>2026-04-01T10:04:30.999Z</time></trkpt><trkpt lat="43.00977306695376" lon="-0.066758792618881"><ele>461.0</ele><time>2026-04-01T10:04:31.999Z</time></trkpt><trkpt lat="43.00993927176711" lon="-0.0667574691371075"><ele>461.0</ele><time>2026-04-01T10:04:32.999Z</time></trkpt><trkpt lat="43.01009982380091" lon="-0.0667853083440275"><ele>461.0</ele><time>2026-04-01T10:04:33.999Z</time></trkpt><trkpt lat="43.01025965816767" lon="-0.06683320552182095"><ele>463.0</ele><time>2026-04-01T10:04:34.999Z</time></trkpt><trkpt lat="43.0104145677621" lon="-0.06688207078142912"><ele>465.0</ele><time>2026-04-01T10:04:35.999Z</time></trkpt><trkpt lat="43.01058955362109" lon="-0.0669527451294738"><ele>467.0</ele><time>2026-04-01T10:04:36.999Z</time></trkpt><trkpt lat="43.01076498474354" lon="-0.066998294925043"><ele>467.0</ele><time>2026-04-01T10:04:37.999Z</time></trkpt><trkpt lat="43.01094350006144" lon="-0.0670017835950274"><ele>467.0</ele><time>2026-04-01T10:04:38.999Z</time></trkpt><trkpt lat="43.01111725342999" lon="-0.06701629008293276"><ele>467.0</ele><time>2026-04-01T10:04:39.999Z</time></trkpt><trkpt lat="43.011281653230874" lon="-0.06704888973998427"><ele>467.0</ele><time>2026-04-01T10:04:40.999Z</time></trkpt><trkpt lat="43.01144605934749" lon="-0.06705853294960695"><ele>467.0</ele><time>2026-04-01T10:04:41.999Z</time></trkpt><trkpt lat="43.01160836707796" lon="-0.06706806478370617"><ele>467.0</ele><time>2026-04-01T10:04:42.999Z</time></trkpt><trkpt lat="43.0117594639703" lon="-0.06705734492588993"><ele>465.3333333333333</ele><time>2026-04-01T10:04:43.999Z</time></trkpt><trkpt lat="43.01191513118993" lon="-0.0670883048911913"><ele>463.66666666666663</ele><time>2026-04-01T10:04:44.999Z</time></trkpt><trkpt lat="43.012085624805366" lon="-0.0670868554189051"><ele>462.0</ele><time>2026-04-01T10:04:45.999Z</time></trkpt><trkpt lat="43.01225369791745" lon="-0.06708234347660387"><ele>462.0</ele><time>2026-04-01T10:04:46.999Z</time></trkpt><trkpt lat="43.01242333831186" lon="-0.06706660194510977"><ele>462.0</ele><time>2026-04-01T10:04:47.999Z</time></trkpt><trkpt lat="43.01259254432981" lon="-0.06704066763238688"><ele>462.0</ele><time>2026-04-01T10:04:48.999Z</time></trkpt><trkpt lat="43.01275442469677" lon="-0.0669990952035591"><ele>461.0</ele><time>2026-04-01T10:04:49.999Z</time></trkpt><trkpt lat="43.01290556740004" lon="-0.06691905433839637"><ele>460.0</ele><time>2026-04-01T10:04:50.999Z</time></trkpt><trkpt lat="43.013061091870824" lon="-0.0668799727529186"><ele>459.0</ele><time>2026-04-01T10:04:51.999Z</time></trkpt><trkpt lat="43.01320505634148" lon="-0.0668201704875899"><ele>458.25</ele><time>2026-04-01T10:04:52.999Z</time></trkpt><trkpt lat="43.0133393835918" lon="-0.0667692011003713"><ele>457.5</ele><time>2026-04-01T10:04:53.999Z</time></trkpt><trkpt lat="43.01345735823189" lon="-0.06672852777988059"><ele>456.75</ele><time>2026-04-01T10:04:54.999Z</time></trkpt><trkpt lat="43.01356593929271" lon="-0.06669660958407614"><ele>456.0</ele><time>2026-04-01T10:04:55.999Z</time></trkpt><trkpt lat="43.013682826251994" lon="-0.06667791149113891"><ele>456.0</ele><time>2026-04-01T10:04:56.999Z</time></trkpt><trkpt lat="43.013811809417994" lon="-0.0666818085172853"><ele>456.0</ele><time>2026-04-01T10:04:57.999Z</time></trkpt><trkpt lat="43.01395613053764" lon="-0.06670461600556381"><ele>456.0</ele><time>2026-04-01T10:04:58.999Z</time></trkpt><trkpt lat="43.01410890578134" lon="-0.06674070493735196"><ele>456.0</ele><time>2026-04-01T10:04:59.999Z</time></trkpt><trkpt lat="43.01426653754419" lon="-0.06677766148217892"><ele>455.33333333333337</ele><time>2026-04-01T10:05:00.999Z</time></trkpt><trkpt lat="43.014428359759435" lon="-0.06681097296446666"><ele>454.6666666666667</ele><time>2026-04-01T10:05:01.999Z</time></trkpt><trkpt lat="43.01458900700353" lon="-0.06683449823454944"><ele>454.0</ele><time>2026-04-01T10:05:02.999Z</time></trkpt><trkpt lat="43.014758411217606" lon="-0.0668552387523531"><ele>454.0</ele><time>2026-04-01T10:05:03.999Z</time></trkpt><trkpt lat="43.01492767260975" lon="-0.06686627616910763"><ele>454.0</ele><time>2026-04-01T10:05:04.999Z</time></trkpt><trkpt lat="43.015082942151274" lon="-0.06686888998373643"><ele>454.0</ele><time>2026-04-01T10:05:05.999Z</time></trkpt><trkpt lat="43.015227314179185" lon="-0.06685221784836763"><ele>453.5</ele><time>2026-04-01T10:05:06.999Z</time></trkpt><trkpt lat="43.015350018449176" lon="-0.0668741848316319"><ele>453.0</ele><time>2026-04-01T10:05:07.999Z</time></trkpt><trkpt lat="43.015468959094214" lon="-0.06688328732189606"><ele>452.5</ele><time>2026-04-01T10:05:08.999Z</time></trkpt><trkpt lat="43.0155857188871" lon="-0.06690395884703594"><ele>452.0</ele><time>2026-04-01T10:05:09.999Z</time></trkpt><trkpt lat="43.01571681573502" lon="-0.06693834785077767"><ele>450.3333333333333</ele><time>2026-04-01T10:05:10.999Z</time></trkpt><trkpt lat="43.01586849867101" lon="-0.06698629121094717"><ele>448.66666666666663</ele><time>2026-04-01T10:05:11.999Z</time></trkpt><trkpt lat="43.01603134716707" lon="-0.06704849559975662"><ele>447.0</ele><time>2026-04-01T10:05:12.999Z</time></trkpt><trkpt lat="43.01620714028448" lon="-0.06710907298832047"><ele>447.0</ele><time>2026-04-01T10:05:13.999Z</time></trkpt><trkpt lat="43.01639172870614" lon="-0.067120273290717"><ele>447.0</ele><time>2026-04-01T10:05:14.999Z</time></trkpt><trkpt lat="43.01657705528793" lon="-0.06715139273334494"><ele>447.0</ele><time>2026-04-01T10:05:15.999Z</time></trkpt><trkpt lat="43.01675896844649" lon="-0.06715193247334338"><ele>445.33333333333337</ele><time>2026-04-01T10:05:16.999Z</time></trkpt><trkpt lat="43.01692805523176" lon="-0.06714270336923193"><ele>443.6666666666667</ele><time>2026-04-01T10:05:17.999Z</time></trkpt><trkpt lat="43.01708166330238" lon="-0.067127567647337"><ele>442.0</ele><time>2026-04-01T10:05:18.999Z</time></trkpt><trkpt lat="43.01720486488727" lon="-0.06706229135119761"><ele>442.0</ele><time>2026-04-01T10:05:19.999Z</time></trkpt><trkpt lat="43.017318640653436" lon="-0.06698090639194118"><ele>442.0</ele><time>2026-04-01T10:05:20.999Z</time></trkpt><trkpt lat="43.01742312397947" lon="-0.06687853055883719"><ele>442.0</ele><time>2026-04-01T10:05:21.999Z</time></trkpt><trkpt lat="43.01753151633336" lon="-0.0667758875421642"><ele>442.0</ele><time>2026-04-01T10:05:22.999Z</time></trkpt><trkpt lat="43.01765575391508" lon="-0.06668384907537753"><ele>440.33333333333337</ele><time>2026-04-01T10:05:23.999Z</time></trkpt><trkpt lat="43.01780132471259" lon="-0.06657421823126777"><ele>438.66666666666663</ele><time>2026-04-01T10:05:24.999Z</time></trkpt><trkpt lat="43.01794601233114" lon="-0.06649698877923634"><ele>437.0</ele><time>2026-04-01T10:05:25.999Z</time></trkpt><trkpt lat="43.01809417875471" lon="-0.06643464743316535"><ele>437.0</ele><time>2026-04-01T10:05:26.999Z</time></trkpt><trkpt lat="43.018252119337404" lon="-0.06641056736314015"><ele>437.0</ele><time>2026-04-01T10:05:27.999Z</time></trkpt><trkpt lat="43.01841476624393" lon="-0.06644146574917617"><ele>437.0</ele><time>2026-04-01T10:05:28.999Z</time></trkpt><trkpt lat="43.01857723903067" lon="-0.06650109095275987"><ele>435.66666666666663</ele><time>2026-04-01T10:05:29.999Z</time></trkpt><trkpt lat="43.018752163350335" lon="-0.06657859971652157"><ele>434.33333333333337</ele><time>2026-04-01T10:05:30.999Z</time></trkpt><trkpt lat="43.01893867885246" lon="-0.06667140019511665"><ele>433.0</ele><time>2026-04-01T10:05:31.999Z</time></trkpt><trkpt lat="43.019128303292064" lon="-0.06677587133979175"><ele>431.33333333333337</ele><time>2026-04-01T10:05:32.999Z</time></trkpt><trkpt lat="43.019307896410105" lon="-0.0668760439852314"><ele>429.66666666666663</ele><time>2026-04-01T10:05:33.999Z</time></trkpt><trkpt lat="43.01948004515211" lon="-0.06697089701509497"><ele>428.0</ele><time>2026-04-01T10:05:34.999Z</time></trkpt><trkpt lat="43.01965390764791" lon="-0.06705914864838418"><ele>428.0</ele><time>2026-04-01T10:05:35.999Z</time></trkpt><trkpt lat="43.01982655501817" lon="-0.0671317005089708"><ele>428.0</ele><time>2026-04-01T10:05:36.999Z</time></trkpt><trkpt lat="43.01999638887196" lon="-0.06717448008561762"><ele>428.0</ele><time>2026-04-01T10:05:37.999Z</time></trkpt><trkpt lat="43.02017143897799" lon="-0.06718778279554186"><ele>426.66666666666663</ele><time>2026-04-01T10:05:38.999Z</time></trkpt><trkpt lat="43.020334014978694" lon="-0.06719026986838839"><ele>425.33333333333337</ele><time>2026-04-01T10:05:39.999Z</time></trkpt><trkpt lat="43.02049283937742" lon="-0.06714561115536674"><ele>424.0</ele><time>2026-04-01T10:05:40.999Z</time></trkpt><trkpt lat="43.02065353332887" lon="-0.06709974672046257"><ele>423.6666666666667</ele><time>2026-04-01T10:05:41.999Z</time></trkpt><trkpt lat="43.0208162958757" lon="-0.06704732852789047"><ele>423.33333333333337</ele><time>2026-04-01T10:05:42.999Z</time></trkpt><trkpt lat="43.020975728502975" lon="-0.06704116504758663"><ele>423.0</ele><time>2026-04-01T10:05:43.999Z</time></trkpt><trkpt lat="43.021133062382475" lon="-0.0670331338485021"><ele>423.0</ele><time>2026-04-01T10:05:44.999Z</time></trkpt><trkpt lat="43.02130542352755" lon="-0.0670323981764524"><ele>423.0</ele><time>2026-04-01T10:05:45.999Z</time></trkpt><trkpt lat="43.02149917188542" lon="-0.06701866474605375"><ele>423.0</ele><time>2026-04-01T10:05:46.999Z</time></trkpt><trkpt lat="43.02171068500111" lon="-0.06699145362493883"><ele>422.66666666666663</ele><time>2026-04-01T10:05:47.999Z</time></trkpt><trkpt lat="43.02191569587724" lon="-0.06696101145488612"><ele>422.3333333333333</ele><time>2026-04-01T10:05:48.999Z</time></trkpt><trkpt lat="43.02209751277055" lon="-0.06692990388066564"><ele>422.0</ele><time>2026-04-01T10:05:49.999Z</time></trkpt><trkpt lat="43.02226746122166" lon="-0.0669110930491006"><ele>422.0</ele><time>2026-04-01T10:05:50.999Z</time></trkpt><trkpt lat="43.02242701825019" lon="-0.06688361251828508"><ele>422.0</ele><time>2026-04-01T10:05:51.999Z</time></trkpt><trkpt lat="43.02258432605286" lon="-0.06686452555758331"><ele>422.0</ele><time>2026-04-01T10:05:52.999Z</time></trkpt><trkpt lat="43.02272369494267" lon="-0.0668610566591628"><ele>422.0</ele><time>2026-04-01T10:05:53.999Z</time></trkpt><trkpt lat="43.0228369752459" lon="-0.06685301647794238"><ele>422.0</ele><time>2026-04-01T10:05:54.999Z</time></trkpt><trkpt lat="43.022929643799344" lon="-0.06682755519511928"><ele>422.0</ele><time>2026-04-01T10:05:55.999Z</time></trkpt><trkpt lat="43.02301161564518" lon="-0.0667710692148869"><ele>422.0</ele><time>2026-04-01T10:05:56.999Z</time></trkpt><trkpt lat="43.02306411369918" lon="-0.06664322402413944"><ele>422.0</ele><time>2026-04-01T10:05:57.999Z</time></trkpt><trkpt lat="43.02316274370929" lon="-0.06656459234416572"><ele>422.0</ele><time>2026-04-01T10:05:58.999Z</time></trkpt><trkpt lat="43.02327016990829" lon="-0.06650447994535029"><ele>422.0</ele><time>2026-04-01T10:05:59.999Z</time></trkpt><trkpt lat="43.02339808276925" lon="-0.06649265843021147"><ele>422.0</ele><time>2026-04-01T10:06:00.999Z</time></trkpt><trkpt lat="43.023547126689216" lon="-0.0665130807254003"><ele>422.0</ele><time>2026-04-01T10:06:01.999Z</time></trkpt><trkpt lat="43.0236833202316" lon="-0.06652877514337076"><ele>423.16666666666663</ele><time>2026-04-01T10:06:02.999Z</time></trkpt><trkpt lat="43.0237893208328" lon="-0.06654163240810604"><ele>424.3333333333333</ele><time>2026-04-01T10:06:03.999Z</time></trkpt><trkpt lat="43.023878937768345" lon="-0.06654888874386625"><ele>425.5</ele><time>2026-04-01T10:06:04.999Z</time></trkpt><trkpt lat="43.02395181417748" lon="-0.06655345099935689"><ele>426.66666666666663</ele><time>2026-04-01T10:06:05.999Z</time></trkpt><trkpt lat="43.02401366435507" lon="-0.06651429359227577"><ele>427.8333333333333</ele><time>2026-04-01T10:06:06.999Z</time></trkpt><trkpt lat="43.02407005158603" lon="-0.06645114969865672"><ele>429.0</ele><time>2026-04-01T10:06:07.999Z</time></trkpt><trkpt lat="43.02414082648302" lon="-0.06636408948690993"><ele>432.25</ele><time>2026-04-01T10:06:08.999Z</time></trkpt><trkpt lat="43.02422731236445" lon="-0.06626237968958279"><ele>435.5</ele><time>2026-04-01T10:06:09.999Z</time></trkpt><trkpt lat="43.024320789104564" lon="-0.06616422964144748"><ele>438.75</ele><time>2026-04-01T10:06:10.999Z</time></trkpt><trkpt lat="43.02443588866183" lon="-0.06602790973790874"><ele>442.0</ele><time>2026-04-01T10:06:11.999Z</time></trkpt><trkpt lat="43.02456498187631" lon="-0.06587208521208988"><ele>452.0</ele><time>2026-04-01T10:06:12.999Z</time></trkpt><trkpt lat="43.02468250931373" lon="-0.06573580003700258"><ele>462.0</ele><time>2026-04-01T10:06:13.999Z</time></trkpt><trkpt lat="43.02480025734957" lon="-0.0655965757405921"><ele>472.0</ele><time>2026-04-01T10:06:14.999Z</time></trkpt><trkpt lat="43.024922834344" lon="-0.06546507614947633"><ele>462.6666666666667</ele><time>2026-04-01T10:06:15.999Z</time></trkpt><trkpt lat="43.025062732534714" lon="-0.06535146025475654"><ele>453.33333333333337</ele><time>2026-04-01T10:06:16.999Z</time></trkpt><trkpt lat="43.025208783979664" lon="-0.06525198495154838"><ele>444.0</ele><time>2026-04-01T10:06:17.999Z</time></trkpt><trkpt lat="43.02535786181512" lon="-0.0651393010968506"><ele>444.0</ele><time>2026-04-01T10:06:18.999Z</time></trkpt><trkpt lat="43.02550347405104" lon="-0.06499973823879122"><ele>444.0</ele><time>2026-04-01T10:06:19.999Z</time></trkpt><trkpt lat="43.025654810073156" lon="-0.06483140753626145"><ele>444.0</ele><time>2026-04-01T10:06:20.999Z</time></trkpt><trkpt lat="43.025806188719365" lon="-0.06466525384456058"><ele>444.0</ele><time>2026-04-01T10:06:21.999Z</time></trkpt><trkpt lat="43.025968849474125" lon="-0.06450572595891339"><ele>444.0</ele><time>2026-04-01T10:06:22.999Z</time></trkpt><trkpt lat="43.026125750539144" lon="-0.06436020556403603"><ele>444.0</ele><time>2026-04-01T10:06:23.999Z</time></trkpt><trkpt lat="43.02628143624846" lon="-0.06421392465393932"><ele>457.66666666666663</ele><time>2026-04-01T10:06:24.999Z</time></trkpt><trkpt lat="43.02642252141493" lon="-0.06407372866494997"><ele>471.3333333333333</ele><time>2026-04-01T10:06:25.999Z</time></trkpt><trkpt lat="43.0265353154749" lon="-0.06394726784351887"><ele>485.0</ele><time>2026-04-01T10:06:26.999Z</time></trkpt><trkpt lat="43.02660514865997" lon="-0.0637967665983223"><ele>472.0</ele><time>2026-04-01T10:06:27.999Z</time></trkpt><trkpt lat="43.0266858720096" lon="-0.06364174373099703"><ele>459.0</ele><time>2026-04-01T10:06:28.999Z</time></trkpt><trkpt lat="43.02679932857723" lon="-0.06348992096482675"><ele>446.0</ele><time>2026-04-01T10:06:29.999Z</time></trkpt><trkpt lat="43.02694930064019" lon="-0.06337585323607678"><ele>446.0</ele><time>2026-04-01T10:06:30.999Z</time></trkpt><trkpt lat="43.02709568187696" lon="-0.0632821389983238"><ele>446.0</ele><time>2026-04-01T10:06:31.999Z</time></trkpt><trkpt lat="43.02724391409097" lon="-0.06318171262360907"><ele>446.0</ele><time>2026-04-01T10:06:32.999Z</time></trkpt><trkpt lat="43.0273666693352" lon="-0.06304926060900841"><ele>448.0</ele><time>2026-04-01T10:06:33.999Z</time></trkpt><trkpt lat="43.0275262664197" lon="-0.06297830643166263"><ele>450.0</ele><time>2026-04-01T10:06:34.999Z</time></trkpt><trkpt lat="43.02768331314172" lon="-0.06290904479038287"><ele>452.0</ele><time>2026-04-01T10:06:35.999Z</time></trkpt><trkpt lat="43.0278170661894" lon="-0.0627984676604106"><ele>452.0</ele><time>2026-04-01T10:06:36.999Z</time></trkpt><trkpt lat="43.02795919519623" lon="-0.06266854803342312"><ele>452.0</ele><time>2026-04-01T10:06:37.999Z</time></trkpt><trkpt lat="43.02810923507804" lon="-0.06257416575746522"><ele>452.0</ele><time>2026-04-01T10:06:38.999Z</time></trkpt><trkpt lat="43.02826923398305" lon="-0.06247647977341081"><ele>453.66666666666663</ele><time>2026-04-01T10:06:39.999Z</time></trkpt><trkpt lat="43.02844515195272" lon="-0.06240795016153489"><ele>455.33333333333337</ele><time>2026-04-01T10:06:40.999Z</time></trkpt><trkpt lat="43.02862210360224" lon="-0.062329329390336856"><ele>457.0</ele><time>2026-04-01T10:06:41.999Z</time></trkpt><trkpt lat="43.0287857504366" lon="-0.06224583826468093"><ele>457.0</ele><time>2026-04-01T10:06:42.999Z</time></trkpt><trkpt lat="43.02894559719697" lon="-0.06217771027918271"><ele>457.0</ele><time>2026-04-01T10:06:43.999Z</time></trkpt><trkpt lat="43.029088840210804" lon="-0.06214067364379097"><ele>457.0</ele><time>2026-04-01T10:06:44.999Z</time></trkpt><trkpt lat="43.029230276561876" lon="-0.06211298191849261"><ele>453.25</ele><time>2026-04-01T10:06:45.999Z</time></trkpt><trkpt lat="43.02937920806528" lon="-0.06210473123510711"><ele>449.5</ele><time>2026-04-01T10:06:46.999Z</time></trkpt><trkpt lat="43.0295269880805" lon="-0.06212277275678088"><ele>445.75</ele><time>2026-04-01T10:06:47.999Z</time></trkpt><trkpt lat="43.02967373443057" lon="-0.06213342797653361"><ele>442.0</ele><time>2026-04-01T10:06:48.999Z</time></trkpt><trkpt lat="43.029816671063834" lon="-0.06210897263912566"><ele>442.0</ele><time>2026-04-01T10:06:49.999Z</time></trkpt><trkpt lat="43.02995380054977" lon="-0.06209066684719549"><ele>442.0</ele><time>2026-04-01T10:06:50.999Z</time></trkpt><trkpt lat="43.03010052966596" lon="-0.06202321266545098"><ele>442.0</ele><time>2026-04-01T10:06:51.999Z</time></trkpt><trkpt lat="43.03026194604319" lon="-0.06193291901885205"><ele>440.0</ele><time>2026-04-01T10:06:52.999Z</time></trkpt><trkpt lat="43.03043002514005" lon="-0.061853739945477555"><ele>438.0</ele><time>2026-04-01T10:06:53.999Z</time></trkpt><trkpt lat="43.03058150701226" lon="-0.06175605181340642"><ele>436.0</ele><time>2026-04-01T10:06:54.999Z</time></trkpt><trkpt lat="43.03072770802744" lon="-0.061668420438211094"><ele>445.0</ele><time>2026-04-01T10:06:55.999Z</time></trkpt><trkpt lat="43.030870315988416" lon="-0.061594513200352016"><ele>454.0</ele><time>2026-04-01T10:06:56.999Z</time></trkpt><trkpt lat="43.031024096028375" lon="-0.0615581797190942"><ele>463.0</ele><time>2026-04-01T10:06:57.999Z</time></trkpt><trkpt lat="43.031184791661516" lon="-0.06157243837294877"><ele>463.0</ele><time>2026-04-01T10:06:58.999Z</time></trkpt><trkpt lat="43.03135432974925" lon="-0.06155609182289833"><ele>463.0</ele><time>2026-04-01T10:06:59.999Z</time></trkpt><trkpt lat="43.0315221389028" lon="-0.061558902859739056"><ele>463.0</ele><time>2026-04-01T10:07:00.999Z</time></trkpt><trkpt lat="43.03168673020397" lon="-0.06156014777617925"><ele>462.25</ele><time>2026-04-01T10:07:01.999Z</time></trkpt><trkpt lat="43.03184109859063" lon="-0.061595447745118895"><ele>461.5</ele><time>2026-04-01T10:07:02.999Z</time></trkpt><trkpt lat="43.031987357761096" lon="-0.06162332383162677"><ele>460.75</ele><time>2026-04-01T10:07:03.999Z</time></trkpt><trkpt lat="43.03212588344544" lon="-0.061667466382957274"><ele>460.0</ele><time>2026-04-01T10:07:04.999Z</time></trkpt><trkpt lat="43.032257312284564" lon="-0.061713140179158785"><ele>447.33333333333337</ele><time>2026-04-01T10:07:05.999Z</time></trkpt><trkpt lat="43.03239727727364" lon="-0.06174589532497514"><ele>434.66666666666663</ele><time>2026-04-01T10:07:06.999Z</time></trkpt><trkpt lat="43.03255303839315" lon="-0.061770721549038614"><ele>422.0</ele><time>2026-04-01T10:07:07.999Z</time></trkpt><trkpt lat="43.03271062017881" lon="-0.061742226541072205"><ele>422.0</ele><time>2026-04-01T10:07:08.999Z</time></trkpt><trkpt lat="43.0328671077898" lon="-0.06171210744552084"><ele>422.0</ele><time>2026-04-01T10:07:09.999Z</time></trkpt><trkpt lat="43.03302526407575" lon="-0.061677173320607154"><ele>422.0</ele><time>2026-04-01T10:07:10.999Z</time></trkpt><trkpt lat="43.03318897824347" lon="-0.061664054496451785"><ele>419.66666666666663</ele><time>2026-04-01T10:07:11.999Z</time></trkpt><trkpt lat="43.033352651223346" lon="-0.06162820388521913"><ele>417.33333333333337</ele><time>2026-04-01T10:07:12.999Z</time></trkpt><trkpt lat="43.03351158497514" lon="-0.061586653029941034"><ele>415.0</ele><time>2026-04-01T10:07:13.999Z</time></trkpt><trkpt lat="43.03367768963328" lon="-0.06153573086011072"><ele>425.33333333333337</ele><time>2026-04-01T10:07:14.999Z</time></trkpt><trkpt lat="43.03384173521625" lon="-0.061484933579395135"><ele>435.66666666666663</ele><time>2026-04-01T10:07:15.999Z</time></trkpt><trkpt lat="43.03401644369094" lon="-0.06143207187187895"><ele>446.0</ele><time>2026-04-01T10:07:16.999Z</time></trkpt><trkpt lat="43.03417777615978" lon="-0.06136226282887339"><ele>446.0</ele><time>2026-04-01T10:07:17.999Z</time></trkpt><trkpt lat="43.034341552127984" lon="-0.06131840439295237"><ele>446.0</ele><time>2026-04-01T10:07:18.999Z</time></trkpt><trkpt lat="43.03450338757114" lon="-0.06130043278647012"><ele>446.0</ele><time>2026-04-01T10:07:19.999Z</time></trkpt><trkpt lat="43.03465040662746" lon="-0.06127101410346044"><ele>446.0</ele><time>2026-04-01T10:07:20.999Z</time></trkpt><trkpt lat="43.034789779162196" lon="-0.06122544092667612"><ele>446.0</ele><time>2026-04-01T10:07:21.999Z</time></trkpt><trkpt lat="43.034932298126805" lon="-0.06118519837347239"><ele>446.0</ele><time>2026-04-01T10:07:22.999Z</time></trkpt><trkpt lat="43.03508641515081" lon="-0.06111752729232333"><ele>450.66666666666663</ele><time>2026-04-01T10:07:23.999Z</time></trkpt><trkpt lat="43.03523588924083" lon="-0.06103441027637304"><ele>455.33333333333337</ele><time>2026-04-01T10:07:24.999Z</time></trkpt><trkpt lat="43.035363533119735" lon="-0.060889436735263"><ele>460.0</ele><time>2026-04-01T10:07:25.999Z</time></trkpt><trkpt lat="43.03550736864566" lon="-0.06076518255726199"><ele>460.0</ele><time>2026-04-01T10:07:26.999Z</time></trkpt><trkpt lat="43.03565170019523" lon="-0.06061062872425445"><ele>460.0</ele><time>2026-04-01T10:07:27.999Z</time></trkpt><trkpt lat="43.035808997542645" lon="-0.06044635429402742"><ele>460.0</ele><time>2026-04-01T10:07:28.999Z</time></trkpt><trkpt lat="43.03596281736655" lon="-0.060282931395300304"><ele>448.33333333333337</ele><time>2026-04-01T10:07:29.999Z</time></trkpt><trkpt lat="43.03612005830844" lon="-0.06011422442327186"><ele>436.66666666666663</ele><time>2026-04-01T10:07:30.999Z</time></trkpt><trkpt lat="43.03627657290455" lon="-0.059943688721437544"><ele>425.0</ele><time>2026-04-01T10:07:31.999Z</time></trkpt><trkpt lat="43.03643014761819" lon="-0.059772903321796314"><ele>425.0</ele><time>2026-04-01T10:07:32.999Z</time></trkpt><trkpt lat="43.03658779307775" lon="-0.05960026623636316"><ele>425.0</ele><time>2026-04-01T10:07:33.999Z</time></trkpt><trkpt lat="43.036746970160294" lon="-0.05942622098160192"><ele>425.0</ele><time>2026-04-01T10:07:34.999Z</time></trkpt><trkpt lat="43.03690549060777" lon="-0.05925429600952296"><ele>419.0</ele><time>2026-04-01T10:07:35.999Z</time></trkpt><trkpt lat="43.0370639483353" lon="-0.05908333759956612"><ele>413.0</ele><time>2026-04-01T10:07:36.999Z</time></trkpt><trkpt lat="43.037224079412304" lon="-0.058910226463929335"><ele>407.0</ele><time>2026-04-01T10:07:37.999Z</time></trkpt><trkpt lat="43.03738171441786" lon="-0.058738412240458455"><ele>407.0</ele><time>2026-04-01T10:07:38.999Z</time></trkpt><trkpt lat="43.03754026097549" lon="-0.05855965602981505"><ele>407.0</ele><time>2026-04-01T10:07:39.999Z</time></trkpt><trkpt lat="43.03769657946823" lon="-0.058387011218633635"><ele>407.0</ele><time>2026-04-01T10:07:40.999Z</time></trkpt><trkpt lat="43.03784569035639" lon="-0.05822142368337411"><ele>407.0</ele><time>2026-04-01T10:07:41.999Z</time></trkpt><trkpt lat="43.037980269707596" lon="-0.05807046324542831"><ele>407.0</ele><time>2026-04-01T10:07:42.999Z</time></trkpt><trkpt lat="43.03811192887079" lon="-0.05792539647966587"><ele>407.0</ele><time>2026-04-01T10:07:43.999Z</time></trkpt><trkpt lat="43.03825079751143" lon="-0.057776889056017924"><ele>406.66666666666663</ele><time>2026-04-01T10:07:44.999Z</time></trkpt><trkpt lat="43.038393690140296" lon="-0.05762058690987062"><ele>406.33333333333337</ele><time>2026-04-01T10:07:45.999Z</time></trkpt><trkpt lat="43.03853703858334" lon="-0.057459623477241505"><ele>406.0</ele><time>2026-04-01T10:07:46.999Z</time></trkpt><trkpt lat="43.038673199950686" lon="-0.05730481933652938"><ele>406.0</ele><time>2026-04-01T10:07:47.999Z</time></trkpt><trkpt lat="43.03880275390469" lon="-0.05715581925435061"><ele>406.0</ele><time>2026-04-01T10:07:48.999Z</time></trkpt><trkpt lat="43.03892022777402" lon="-0.05702493364127563"><ele>406.0</ele><time>2026-04-01T10:07:49.999Z</time></trkpt><trkpt lat="43.039050081908385" lon="-0.05692133769474559"><ele>406.6666666666667</ele><time>2026-04-01T10:07:50.999Z</time></trkpt><trkpt lat="43.0391983956273" lon="-0.05687383366517618"><ele>407.33333333333337</ele><time>2026-04-01T10:07:51.999Z</time></trkpt><trkpt lat="43.03935676040937" lon="-0.056845252119872035"><ele>408.0</ele><time>2026-04-01T10:07:52.999Z</time></trkpt><trkpt lat="43.03951650116723" lon="-0.05685977860789165"><ele>408.0</ele><time>2026-04-01T10:07:53.999Z</time></trkpt><trkpt lat="43.039664779846696" lon="-0.056909290094772726"><ele>408.0</ele><time>2026-04-01T10:07:54.999Z</time></trkpt><trkpt lat="43.03979484818049" lon="-0.05696646237787871"><ele>408.0</ele><time>2026-04-01T10:07:55.999Z</time></trkpt><trkpt lat="43.03991448066062" lon="-0.05701911271239529"><ele>408.0</ele><time>2026-04-01T10:07:56.999Z</time></trkpt><trkpt lat="43.04004502330179" lon="-0.05704429561832435"><ele>408.25</ele><time>2026-04-01T10:07:57.999Z</time></trkpt><trkpt lat="43.04018587881997" lon="-0.05704053657459169"><ele>408.5</ele><time>2026-04-01T10:07:58.999Z</time></trkpt><trkpt lat="43.04032312133709" lon="-0.05701383308344808"><ele>408.75</ele><time>2026-04-01T10:07:59.999Z</time></trkpt><trkpt lat="43.040447567221435" lon="-0.05697289983828016"><ele>409.0</ele><time>2026-04-01T10:08:00.999Z</time></trkpt><trkpt lat="43.04056616107305" lon="-0.056937524795597765"><ele>409.0</ele><time>2026-04-01T10:08:01.999Z</time></trkpt><trkpt lat="43.04068859985558" lon="-0.05693934541599119"><ele>409.0</ele><time>2026-04-01T10:08:02.999Z</time></trkpt><trkpt lat="43.04081382766866" lon="-0.056993212549130125"><ele>409.0</ele><time>2026-04-01T10:08:03.999Z</time></trkpt><trkpt lat="43.0409387765659" lon="-0.05709396847407395"><ele>409.0</ele><time>2026-04-01T10:08:04.999Z</time></trkpt><trkpt lat="43.04106793232555" lon="-0.05721543725615244"><ele>409.25</ele><time>2026-04-01T10:08:05.999Z</time></trkpt><trkpt lat="43.04119598754274" lon="-0.05733162910212797"><ele>409.5</ele><time>2026-04-01T10:08:06.999Z</time></trkpt><trkpt lat="43.04130870255964" lon="-0.05744015247359475"><ele>409.75</ele><time>2026-04-01T10:08:07.999Z</time></trkpt><trkpt lat="43.04140646943402" lon="-0.0575482216021696"><ele>410.0</ele><time>2026-04-01T10:08:08.999Z</time></trkpt><trkpt lat="43.04149951582631" lon="-0.05763800766656513"><ele>410.0</ele><time>2026-04-01T10:08:09.999Z</time></trkpt><trkpt lat="43.04159146070647" lon="-0.057691303411507217"><ele>410.0</ele><time>2026-04-01T10:08:10.999Z</time></trkpt><trkpt lat="43.04168228027006" lon="-0.05770518874332681"><ele>410.0</ele><time>2026-04-01T10:08:11.999Z</time></trkpt><trkpt lat="43.04176308916078" lon="-0.057633950300862546"><ele>410.0</ele><time>2026-04-01T10:08:12.999Z</time></trkpt><trkpt lat="43.04183101793763" lon="-0.05754624416672355"><ele>410.0</ele><time>2026-04-01T10:08:13.999Z</time></trkpt><trkpt lat="43.04191287398451" lon="-0.057421087520124134"><ele>412.66666666666663</ele><time>2026-04-01T10:08:14.999Z</time></trkpt><trkpt lat="43.04201932562868" lon="-0.057272147556110084"><ele>415.33333333333337</ele><time>2026-04-01T10:08:15.999Z</time></trkpt><trkpt lat="43.04211597142245" lon="-0.05709228952380319"><ele>418.0</ele><time>2026-04-01T10:08:16.999Z</time></trkpt><trkpt lat="43.042220843884564" lon="-0.05689937337349655"><ele>418.0</ele><time>2026-04-01T10:08:17.999Z</time></trkpt><trkpt lat="43.04232208916532" lon="-0.05671421315646127"><ele>418.0</ele><time>2026-04-01T10:08:18.999Z</time></trkpt><trkpt lat="43.04242919647765" lon="-0.05650686796565878"><ele>418.0</ele><time>2026-04-01T10:08:19.999Z</time></trkpt><trkpt lat="43.042536344199604" lon="-0.056300776621189715"><ele>419.0</ele><time>2026-04-01T10:08:20.999Z</time></trkpt><trkpt lat="43.04265129860748" lon="-0.05610015570374987"><ele>420.0</ele><time>2026-04-01T10:08:21.999Z</time></trkpt><trkpt lat="43.04274972470778" lon="-0.055910366393444905"><ele>421.0</ele><time>2026-04-01T10:08:22.999Z</time></trkpt><trkpt lat="43.04284188407965" lon="-0.05572725340423431"><ele>421.0</ele><time>2026-04-01T10:08:23.999Z</time></trkpt><trkpt lat="43.04294783729124" lon="-0.05556073011426128"><ele>421.0</ele><time>2026-04-01T10:08:24.999Z</time></trkpt><trkpt lat="43.043068504818905" lon="-0.055414307637221154"><ele>421.0</ele><time>2026-04-01T10:08:25.999Z</time></trkpt><trkpt lat="43.04320934411874" lon="-0.05528439903643932"><ele>419.6666666666667</ele><time>2026-04-01T10:08:26.999Z</time></trkpt><trkpt lat="43.04333727904171" lon="-0.05517324474162343"><ele>418.33333333333337</ele><time>2026-04-01T10:08:27.999Z</time></trkpt><trkpt lat="43.04344852763542" lon="-0.05503520190145131"><ele>417.0</ele><time>2026-04-01T10:08:28.999Z</time></trkpt><trkpt lat="43.04355016475713" lon="-0.05488697810099213"><ele>423.0</ele><time>2026-04-01T10:08:29.999Z</time></trkpt><trkpt lat="43.04366711434176" lon="-0.054695856423571616"><ele>429.0</ele><time>2026-04-01T10:08:30.999Z</time></trkpt><trkpt lat="43.04378686022738" lon="-0.0544937127471804"><ele>435.0</ele><time>2026-04-01T10:08:31.999Z</time></trkpt><trkpt lat="43.04390995382928" lon="-0.05428718622143303"><ele>437.0</ele><time>2026-04-01T10:08:32.999Z</time></trkpt><trkpt lat="43.04405961408195" lon="-0.05408981714817814"><ele>439.0</ele><time>2026-04-01T10:08:33.999Z</time></trkpt><trkpt lat="43.044210522140865" lon="-0.053886436138287745"><ele>441.0</ele><time>2026-04-01T10:08:34.999Z</time></trkpt><trkpt lat="43.04435946673505" lon="-0.05367735719848116"><ele>441.33333333333337</ele><time>2026-04-01T10:08:35.999Z</time></trkpt><trkpt lat="43.04448674913792" lon="-0.05344871372695349"><ele>441.6666666666667</ele><time>2026-04-01T10:08:36.999Z</time></trkpt><trkpt lat="43.0446334646584" lon="-0.05323235824831298"><ele>442.0</ele><time>2026-04-01T10:08:37.999Z</time></trkpt><trkpt lat="43.04477623079376" lon="-0.053029014566118436"><ele>442.0</ele><time>2026-04-01T10:08:38.999Z</time></trkpt><trkpt lat="43.0449145316188" lon="-0.05283305804911679"><ele>442.0</ele><time>2026-04-01T10:08:39.999Z</time></trkpt><trkpt lat="43.045061147298604" lon="-0.05263688275044035"><ele>442.0</ele><time>2026-04-01T10:08:40.999Z</time></trkpt><trkpt lat="43.04521838045458" lon="-0.052476922665193645"><ele>442.33333333333337</ele><time>2026-04-01T10:08:41.999Z</time></trkpt><trkpt lat="43.04537190228895" lon="-0.05229993478716443"><ele>442.66666666666663</ele><time>2026-04-01T10:08:42.999Z</time></trkpt><trkpt lat="43.04550525512356" lon="-0.052115871818849184"><ele>443.0</ele><time>2026-04-01T10:08:43.999Z</time></trkpt><trkpt lat="43.045659153562404" lon="-0.05197425659930999"><ele>443.0</ele><time>2026-04-01T10:08:44.999Z</time></trkpt><trkpt lat="43.04579154106987" lon="-0.051827934159276896"><ele>443.0</ele><time>2026-04-01T10:08:45.999Z</time></trkpt><trkpt lat="43.04592096152794" lon="-0.051690666959071034"><ele>443.0</ele><time>2026-04-01T10:08:46.999Z</time></trkpt><trkpt lat="43.046037320751495" lon="-0.05156969803989335"><ele>444.0</ele><time>2026-04-01T10:08:47.999Z</time></trkpt><trkpt lat="43.04615117183239" lon="-0.05147010312173672"><ele>445.0</ele><time>2026-04-01T10:08:48.999Z</time></trkpt><trkpt lat="43.04627578481663" lon="-0.05141713805635376"><ele>446.0</ele><time>2026-04-01T10:08:49.999Z</time></trkpt><trkpt lat="43.04641036492947" lon="-0.051415421017936634"><ele>447.0</ele><time>2026-04-01T10:08:50.999Z</time></trkpt><trkpt lat="43.046544962100775" lon="-0.05144441315417632"><ele>437.25</ele><time>2026-04-01T10:08:51.999Z</time></trkpt><trkpt lat="43.0466813147322" lon="-0.05146381904446773"><ele>427.5</ele><time>2026-04-01T10:08:52.999Z</time></trkpt><trkpt lat="43.046813675015684" lon="-0.051396784175296896"><ele>417.75</ele><time>2026-04-01T10:08:54Z</time></trkpt><trkpt lat="43.04693933464768" lon="-0.05126843964534941"><ele>408.0</ele><time>2026-04-01T10:08:55Z</time></trkpt><trkpt lat="43.04706141922758" lon="-0.051126160911571024"><ele>408.0</ele><time>2026-04-01T10:08:56Z</time></trkpt><trkpt lat="43.04719413513805" lon="-0.050989140382333875"><ele>408.0</ele><time>2026-04-01T10:08:57Z</time></trkpt><trkpt lat="43.047313374549546" lon="-0.05083427641231956"><ele>408.0</ele><time>2026-04-01T10:08:58Z</time></trkpt><trkpt lat="43.04743147300603" lon="-0.050685316732084394"><ele>404.33333333333337</ele><time>2026-04-01T10:08:59Z</time></trkpt><trkpt lat="43.04760034112437" lon="-0.05048412467182614"><ele>400.6666666666667</ele><time>2026-04-01T10:09:00Z</time></trkpt><trkpt lat="43.04771609603132" lon="-0.050280557645945266"><ele>397.0</ele><time>2026-04-01T10:09:01Z</time></trkpt><trkpt lat="43.04784270721973" lon="-0.050087363541884165"><ele>398.0</ele><time>2026-04-01T10:09:02Z</time></trkpt><trkpt lat="43.047962930209124" lon="-0.049902413539560105"><ele>399.0</ele><time>2026-04-01T10:09:03Z</time></trkpt><trkpt lat="43.04808692331001" lon="-0.049725601969287825"><ele>400.0</ele><time>2026-04-01T10:09:04Z</time></trkpt><trkpt lat="43.048232595980345" lon="-0.04958805877324181"><ele>398.6666666666667</ele><time>2026-04-01T10:09:05Z</time></trkpt><trkpt lat="43.048366163940315" lon="-0.04944884406591186"><ele>397.33333333333337</ele><time>2026-04-01T10:09:06Z</time></trkpt><trkpt lat="43.04849067351413" lon="-0.049308483334605156"><ele>396.0</ele><time>2026-04-01T10:09:07Z</time></trkpt><trkpt lat="43.048532994384516" lon="-0.04911355151953965"><ele>395.33333333333337</ele><time>2026-04-01T10:09:08Z</time></trkpt><trkpt lat="43.04858025458199" lon="-0.04892182432105379"><ele>394.6666666666667</ele><time>2026-04-01T10:09:09Z</time></trkpt><trkpt lat="43.04864479452417" lon="-0.04873158704062646"><ele>394.0</ele><time>2026-04-01T10:09:10Z</time></trkpt><trkpt lat="43.048737802191475" lon="-0.04854325812386008"><ele>394.0</ele><time>2026-04-01T10:09:11Z</time></trkpt><trkpt lat="43.04883888498028" lon="-0.04833462423948991"><ele>394.0</ele><time>2026-04-01T10:09:12Z</time></trkpt><trkpt lat="43.04896903316499" lon="-0.048118984702641775"><ele>394.0</ele><time>2026-04-01T10:09:13Z</time></trkpt><trkpt lat="43.04906584453635" lon="-0.04788438053415718"><ele>393.6666666666667</ele><time>2026-04-01T10:09:14Z</time></trkpt><trkpt lat="43.0491807104369" lon="-0.04764453663444862"><ele>393.33333333333337</ele><time>2026-04-01T10:09:15Z</time></trkpt><trkpt lat="43.04931532343177" lon="-0.04743433469273358"><ele>393.0</ele><time>2026-04-01T10:09:16Z</time></trkpt><trkpt lat="43.04946803635924" lon="-0.047249119932767446"><ele>393.66666666666663</ele><time>2026-04-01T10:09:17Z</time></trkpt><trkpt lat="43.04961920725263" lon="-0.047059541419521116"><ele>394.3333333333333</ele><time>2026-04-01T10:09:18Z</time></trkpt><trkpt lat="43.04976234094071" lon="-0.046872732881144415"><ele>395.0</ele><time>2026-04-01T10:09:19Z</time></trkpt><trkpt lat="43.04989701557243" lon="-0.046677047776483196"><ele>394.66666666666663</ele><time>2026-04-01T10:09:20Z</time></trkpt><trkpt lat="43.0500172033722" lon="-0.04646591879451184"><ele>394.33333333333337</ele><time>2026-04-01T10:09:21Z</time></trkpt><trkpt lat="43.05014533877059" lon="-0.04626387740097209"><ele>394.0</ele><time>2026-04-01T10:09:22Z</time></trkpt><trkpt lat="43.050292318275424" lon="-0.04606606051589871"><ele>394.0</ele><time>2026-04-01T10:09:23Z</time></trkpt><trkpt lat="43.05043557619536" lon="-0.0458545698069027"><ele>394.0</ele><time>2026-04-01T10:09:24Z</time></trkpt><trkpt lat="43.050585200268024" lon="-0.045660491039829956"><ele>394.0</ele><time>2026-04-01T10:09:25Z</time></trkpt><trkpt lat="43.05074223066391" lon="-0.04548249552066112"><ele>393.33333333333337</ele><time>2026-04-01T10:09:26Z</time></trkpt><trkpt lat="43.05090156588505" lon="-0.045318382882199956"><ele>392.66666666666663</ele><time>2026-04-01T10:09:27Z</time></trkpt><trkpt lat="43.051062376363134" lon="-0.04515985753268248"><ele>392.0</ele><time>2026-04-01T10:09:28Z</time></trkpt><trkpt lat="43.05123151617245" lon="-0.045004057340288284"><ele>392.66666666666663</ele><time>2026-04-01T10:09:29Z</time></trkpt><trkpt lat="43.051404554344636" lon="-0.04485037708209423"><ele>393.33333333333337</ele><time>2026-04-01T10:09:30Z</time></trkpt><trkpt lat="43.0515786223198" lon="-0.04469235850746287"><ele>394.0</ele><time>2026-04-01T10:09:31Z</time></trkpt><trkpt lat="43.05175578657964" lon="-0.04453352203878352"><ele>394.0</ele><time>2026-04-01T10:09:32Z</time></trkpt><trkpt lat="43.05192979295073" lon="-0.04438927993686632"><ele>394.0</ele><time>2026-04-01T10:09:33Z</time></trkpt><trkpt lat="43.05210619926373" lon="-0.04425694392820598"><ele>394.0</ele><time>2026-04-01T10:09:34Z</time></trkpt><trkpt lat="43.05228819601263" lon="-0.04413581350884346"><ele>394.6666666666667</ele><time>2026-04-01T10:09:35Z</time></trkpt><trkpt lat="43.0524756262327" lon="-0.044015706491181895"><ele>395.33333333333337</ele><time>2026-04-01T10:09:36Z</time></trkpt><trkpt lat="43.052664210092914" lon="-0.04389052585763563"><ele>396.0</ele><time>2026-04-01T10:09:37Z</time></trkpt><trkpt lat="43.05285530839654" lon="-0.04377024996616982"><ele>396.0</ele><time>2026-04-01T10:09:38Z</time></trkpt><trkpt lat="43.053040780023345" lon="-0.0436524858876646"><ele>396.0</ele><time>2026-04-01T10:09:39Z</time></trkpt><trkpt lat="43.05322524938394" lon="-0.043528120550961356"><ele>396.0</ele><time>2026-04-01T10:09:40Z</time></trkpt><trkpt lat="43.053411988054265" lon="-0.043404296470675306"><ele>395.33333333333337</ele><time>2026-04-01T10:09:41Z</time></trkpt><trkpt lat="43.05360932044134" lon="-0.04327712098411488"><ele>394.6666666666667</ele><time>2026-04-01T10:09:42Z</time></trkpt><trkpt lat="43.053815826055114" lon="-0.04314411141533088"><ele>394.0</ele><time>2026-04-01T10:09:43Z</time></trkpt><trkpt lat="43.054015581307155" lon="-0.043013387723328085"><ele>393.6666666666667</ele><time>2026-04-01T10:09:44Z</time></trkpt><trkpt lat="43.05420600703854" lon="-0.0428862258588829"><ele>393.33333333333337</ele><time>2026-04-01T10:09:45Z</time></trkpt><trkpt lat="43.054394808601764" lon="-0.0427570525655447"><ele>393.0</ele><time>2026-04-01T10:09:46Z</time></trkpt><trkpt lat="43.054575944364274" lon="-0.04261828366680818"><ele>393.33333333333337</ele><time>2026-04-01T10:09:47Z</time></trkpt><trkpt lat="43.05474592907699" lon="-0.042461581048318445"><ele>393.6666666666667</ele><time>2026-04-01T10:09:48Z</time></trkpt><trkpt lat="43.0548996387863" lon="-0.04228776825507211"><ele>394.0</ele><time>2026-04-01T10:09:49Z</time></trkpt><trkpt lat="43.055020194148625" lon="-0.04206643572962061"><ele>394.33333333333337</ele><time>2026-04-01T10:09:50Z</time></trkpt><trkpt lat="43.05517401758573" lon="-0.04189574870689325"><ele>394.66666666666663</ele><time>2026-04-01T10:09:51Z</time></trkpt><trkpt lat="43.05531693646514" lon="-0.04172731855947143"><ele>395.0</ele><time>2026-04-01T10:09:52Z</time></trkpt><trkpt lat="43.05548486023916" lon="-0.041598919218682195"><ele>396.66666666666663</ele><time>2026-04-01T10:09:53Z</time></trkpt><trkpt lat="43.05566537007366" lon="-0.041506353770780574"><ele>398.33333333333337</ele><time>2026-04-01T10:09:54Z</time></trkpt><trkpt lat="43.055847651775686" lon="-0.041453244545319755"><ele>400.0</ele><time>2026-04-01T10:09:55Z</time></trkpt><trkpt lat="43.05603152114109" lon="-0.041429487592983524"><ele>404.6666666666667</ele><time>2026-04-01T10:09:56Z</time></trkpt><trkpt lat="43.056214571339524" lon="-0.04140868384997255"><ele>409.33333333333337</ele><time>2026-04-01T10:09:57Z</time></trkpt><trkpt lat="43.05640274022422" lon="-0.04133907890395619"><ele>414.0</ele><time>2026-04-01T10:09:58Z</time></trkpt><trkpt lat="43.05658448789946" lon="-0.04127515125619357"><ele>410.0</ele><time>2026-04-01T10:09:59Z</time></trkpt><trkpt lat="43.056773790454606" lon="-0.041213626187199204"><ele>406.0</ele><time>2026-04-01T10:10:00Z</time></trkpt><trkpt lat="43.05695440318732" lon="-0.04109813763896157"><ele>402.0</ele><time>2026-04-01T10:10:01Z</time></trkpt><trkpt lat="43.0571342119508" lon="-0.04099184509160787"><ele>402.0</ele><time>2026-04-01T10:10:02Z</time></trkpt><trkpt lat="43.05730714360828" lon="-0.04088550078931023"><ele>402.0</ele><time>2026-04-01T10:10:03Z</time></trkpt><trkpt lat="43.057475769829296" lon="-0.040804736260257254"><ele>402.0</ele><time>2026-04-01T10:10:04Z</time></trkpt><trkpt lat="43.057638154788" lon="-0.04072868407906291"><ele>402.33333333333337</ele><time>2026-04-01T10:10:05Z</time></trkpt><trkpt lat="43.05780353691644" lon="-0.040692536801524466"><ele>402.6666666666667</ele><time>2026-04-01T10:10:06Z</time></trkpt><trkpt lat="43.05797216778454" lon="-0.04070068149437485"><ele>403.0</ele><time>2026-04-01T10:10:07Z</time></trkpt><trkpt lat="43.05813195017021" lon="-0.04074690707723329"><ele>403.25</ele><time>2026-04-01T10:10:08Z</time></trkpt><trkpt lat="43.05827256596638" lon="-0.04083206091225546"><ele>403.5</ele><time>2026-04-01T10:10:09Z</time></trkpt><trkpt lat="43.058378347586086" lon="-0.040941380195144116"><ele>403.75</ele><time>2026-04-01T10:10:10Z</time></trkpt><trkpt lat="43.05846138594053" lon="-0.04104878597522198"><ele>404.0</ele><time>2026-04-01T10:10:11Z</time></trkpt><trkpt lat="43.05854866169294" lon="-0.04111357339490597"><ele>404.0</ele><time>2026-04-01T10:10:12Z</time></trkpt><trkpt lat="43.05865096513568" lon="-0.04109343143236305"><ele>404.0</ele><time>2026-04-01T10:10:13Z</time></trkpt><trkpt lat="43.05876369835292" lon="-0.04104681612682922"><ele>404.0</ele><time>2026-04-01T10:10:14Z</time></trkpt><trkpt lat="43.058876070016595" lon="-0.040960002206237196"><ele>404.0</ele><time>2026-04-01T10:10:15Z</time></trkpt><trkpt lat="43.05900417271132" lon="-0.040872485181115546"><ele>404.66666666666663</ele><time>2026-04-01T10:10:16Z</time></trkpt><trkpt lat="43.059146328458084" lon="-0.040814853048809045"><ele>405.33333333333337</ele><time>2026-04-01T10:10:17Z</time></trkpt><trkpt lat="43.05930252896944" lon="-0.040744653629615"><ele>406.0</ele><time>2026-04-01T10:10:18Z</time></trkpt><trkpt lat="43.05949205430816" lon="-0.0406889025403651"><ele>410.0</ele><time>2026-04-01T10:10:19Z</time></trkpt><trkpt lat="43.05968757315471" lon="-0.040628723144996014"><ele>414.0</ele><time>2026-04-01T10:10:20Z</time></trkpt><trkpt lat="43.05986652554171" lon="-0.04057335012753813"><ele>418.0</ele><time>2026-04-01T10:10:21Z</time></trkpt><trkpt lat="43.060040438965345" lon="-0.04051689658016744"><ele>418.33333333333337</ele><time>2026-04-01T10:10:22Z</time></trkpt><trkpt lat="43.06022550101465" lon="-0.04044896003989377"><ele>418.66666666666663</ele><time>2026-04-01T10:10:23Z</time></trkpt><trkpt lat="43.06040262621538" lon="-0.04037260815557972"><ele>419.0</ele><time>2026-04-01T10:10:24Z</time></trkpt><trkpt lat="43.06057969177048" lon="-0.04029115955908805"><ele>419.0</ele><time>2026-04-01T10:10:25Z</time></trkpt><trkpt lat="43.06075140026271" lon="-0.040211400203271366"><ele>419.0</ele><time>2026-04-01T10:10:26Z</time></trkpt><trkpt lat="43.06091709968399" lon="-0.04010496648359161"><ele>419.0</ele><time>2026-04-01T10:10:27Z</time></trkpt><trkpt lat="43.0610823779685" lon="-0.03999733055933602"><ele>422.3333333333333</ele><time>2026-04-01T10:10:28Z</time></trkpt><trkpt lat="43.06125383936074" lon="-0.03991547971028978"><ele>425.66666666666663</ele><time>2026-04-01T10:10:29Z</time></trkpt><trkpt lat="43.06142798959823" lon="-0.03982247477415016"><ele>429.0</ele><time>2026-04-01T10:10:30Z</time></trkpt><trkpt lat="43.061606156127155" lon="-0.039776850119032675"><ele>428.33333333333337</ele><time>2026-04-01T10:10:31Z</time></trkpt><trkpt lat="43.061779830828755" lon="-0.03977063124700765"><ele>427.6666666666667</ele><time>2026-04-01T10:10:32Z</time></trkpt><trkpt lat="43.061940426051414" lon="-0.039781719166211905"><ele>427.0</ele><time>2026-04-01T10:10:33Z</time></trkpt><trkpt lat="43.062115508804524" lon="-0.03977016427243924"><ele>427.0</ele><time>2026-04-01T10:10:34Z</time></trkpt><trkpt lat="43.062302458304345" lon="-0.03967798353128052"><ele>427.0</ele><time>2026-04-01T10:10:35Z</time></trkpt><trkpt lat="43.06250590263961" lon="-0.039595045104584135"><ele>427.0</ele><time>2026-04-01T10:10:36Z</time></trkpt><trkpt lat="43.06270541935007" lon="-0.03953963838860263"><ele>424.6666666666667</ele><time>2026-04-01T10:10:37Z</time></trkpt><trkpt lat="43.06289445255612" lon="-0.039465444856489194"><ele>422.33333333333337</ele><time>2026-04-01T10:10:38Z</time></trkpt><trkpt lat="43.06308524828141" lon="-0.03939734070618934"><ele>420.0</ele><time>2026-04-01T10:10:39Z</time></trkpt><trkpt lat="43.06326988484704" lon="-0.0393420830575378"><ele>417.66666666666663</ele><time>2026-04-01T10:10:40Z</time></trkpt><trkpt lat="43.06345519336648" lon="-0.03932017219481879"><ele>415.3333333333333</ele><time>2026-04-01T10:10:41Z</time></trkpt><trkpt lat="43.0636364109709" lon="-0.03932744377612935"><ele>413.0</ele><time>2026-04-01T10:10:42Z</time></trkpt><trkpt lat="43.063818328627" lon="-0.03935053458841613"><ele>413.0</ele><time>2026-04-01T10:10:43Z</time></trkpt><trkpt lat="43.06399121014058" lon="-0.03937919679617646"><ele>413.0</ele><time>2026-04-01T10:10:44Z</time></trkpt><trkpt lat="43.06413727873492" lon="-0.039408968569385715"><ele>413.0</ele><time>2026-04-01T10:10:45Z</time></trkpt><trkpt lat="43.064277197899635" lon="-0.03942812868347086"><ele>411.25</ele><time>2026-04-01T10:10:46Z</time></trkpt><trkpt lat="43.064414909500805" lon="-0.03942397615865558"><ele>409.5</ele><time>2026-04-01T10:10:47Z</time></trkpt><trkpt lat="43.06455348326933" lon="-0.03940648328659995"><ele>407.75</ele><time>2026-04-01T10:10:48Z</time></trkpt><trkpt lat="43.06469661698274" lon="-0.0393982093990842"><ele>406.0</ele><time>2026-04-01T10:10:49Z</time></trkpt><trkpt lat="43.06484232290464" lon="-0.03939250099524622"><ele>405.25</ele><time>2026-04-01T10:10:50Z</time></trkpt><trkpt lat="43.06498183958466" lon="-0.03938211785355958"><ele>404.5</ele><time>2026-04-01T10:10:51Z</time></trkpt><trkpt lat="43.06510394774477" lon="-0.03932762993780285"><ele>403.75</ele><time>2026-04-01T10:10:52Z</time></trkpt><trkpt lat="43.06520748020422" lon="-0.03924314711088202"><ele>403.0</ele><time>2026-04-01T10:10:53Z</time></trkpt><trkpt lat="43.06524764003119" lon="-0.03909751579895594"><ele>407.25</ele><time>2026-04-01T10:10:54Z</time></trkpt><trkpt lat="43.065306385496505" lon="-0.038946696258250375"><ele>411.5</ele><time>2026-04-01T10:10:55Z</time></trkpt><trkpt lat="43.06539457972704" lon="-0.038786281563762195"><ele>415.75</ele><time>2026-04-01T10:10:56Z</time></trkpt><trkpt lat="43.0654898711587" lon="-0.038620401192336694"><ele>420.0</ele><time>2026-04-01T10:10:57Z</time></trkpt><trkpt lat="43.06561546616849" lon="-0.03845071366444842"><ele>417.33333333333337</ele><time>2026-04-01T10:10:58Z</time></trkpt><trkpt lat="43.06572632154979" lon="-0.03827348619630833"><ele>414.6666666666667</ele><time>2026-04-01T10:10:59Z</time></trkpt><trkpt lat="43.06585826461214" lon="-0.038137976380273726"><ele>412.0</ele><time>2026-04-01T10:11:00Z</time></trkpt><trkpt lat="43.06598335423633" lon="-0.03799489699160857"><ele>412.0</ele><time>2026-04-01T10:11:01Z</time></trkpt><trkpt lat="43.066128104251334" lon="-0.03787914282288501"><ele>412.0</ele><time>2026-04-01T10:11:02Z</time></trkpt><trkpt lat="43.06626701227379" lon="-0.03776967195789773"><ele>412.0</ele><time>2026-04-01T10:11:03Z</time></trkpt><trkpt lat="43.066386185338736" lon="-0.03765897717802241"><ele>412.0</ele><time>2026-04-01T10:11:04Z</time></trkpt><trkpt lat="43.06648697088613" lon="-0.03755352033088888"><ele>412.0</ele><time>2026-04-01T10:11:05Z</time></trkpt><trkpt lat="43.0665772784838" lon="-0.037477454244103175"><ele>412.0</ele><time>2026-04-01T10:11:06Z</time></trkpt><trkpt lat="43.06664861143031" lon="-0.037413895779001165"><ele>412.0</ele><time>2026-04-01T10:11:07Z</time></trkpt><trkpt lat="43.06671856216884" lon="-0.03734201884269759"><ele>412.0</ele><time>2026-04-01T10:11:08Z</time></trkpt><trkpt lat="43.06677237836151" lon="-0.03727495120902039"><ele>411.57142857142856</ele><time>2026-04-01T10:11:09Z</time></trkpt><trkpt lat="43.06681151463125" lon="-0.03720596184360583"><ele>411.1428571428571</ele><time>2026-04-01T10:11:10Z</time></trkpt><trkpt lat="43.06684447412066" lon="-0.037126657580839224"><ele>410.71428571428567</ele><time>2026-04-01T10:11:11Z</time></trkpt><trkpt lat="43.066869948712856" lon="-0.03702851493856218"><ele>410.2857142857143</ele><time>2026-04-01T10:11:12Z</time></trkpt><trkpt lat="43.06686908027999" lon="-0.03693994461540811"><ele>409.8571428571429</ele><time>2026-04-01T10:11:13Z</time></trkpt><trkpt lat="43.06684054762011" lon="-0.03686243042974776"><ele>409.4285714285714</ele><time>2026-04-01T10:11:14Z</time></trkpt><trkpt lat="43.06679081455602" lon="-0.036795078971142786"><ele>409.0</ele><time>2026-04-01T10:11:15Z</time></trkpt><trkpt lat="43.0667296477571" lon="-0.03674301132967916"><ele>409.0</ele><time>2026-04-01T10:11:16Z</time></trkpt><trkpt lat="43.06665781826918" lon="-0.036713211047412764"><ele>409.0</ele><time>2026-04-01T10:11:17Z</time></trkpt><trkpt lat="43.0665788324113" lon="-0.03668007226401194"><ele>409.0</ele><time>2026-04-01T10:11:18Z</time></trkpt><trkpt lat="43.066491922027424" lon="-0.036625361058826335"><ele>409.0</ele><time>2026-04-01T10:11:19Z</time></trkpt><trkpt lat="43.06638777669056" lon="-0.03656394377730295"><ele>409.0</ele><time>2026-04-01T10:11:20Z</time></trkpt><trkpt lat="43.066288963226725" lon="-0.03649917047140632"><ele>409.79999999999995</ele><time>2026-04-01T10:11:21Z</time></trkpt><trkpt lat="43.06620454095222" lon="-0.03642075344827521"><ele>410.59999999999997</ele><time>2026-04-01T10:11:22Z</time></trkpt><trkpt lat="43.066129395932336" lon="-0.0363451686042242"><ele>411.4</ele><time>2026-04-01T10:11:23Z</time></trkpt><trkpt lat="43.06604992751372" lon="-0.036266637288528775"><ele>412.2</ele><time>2026-04-01T10:11:24Z</time></trkpt><trkpt lat="43.06597179960428" lon="-0.03618058493695295"><ele>413.0</ele><time>2026-04-01T10:11:25Z</time></trkpt><trkpt lat="43.06590397132922" lon="-0.03607289453154783"><ele>413.0</ele><time>2026-04-01T10:11:26Z</time></trkpt><trkpt lat="43.065840439108506" lon="-0.035954701442656625"><ele>413.0</ele><time>2026-04-01T10:11:27Z</time></trkpt><trkpt lat="43.06577450821476" lon="-0.03583555699751427"><ele>413.0</ele><time>2026-04-01T10:11:28Z</time></trkpt><trkpt lat="43.065709042835216" lon="-0.035712719107702906"><ele>413.0</ele><time>2026-04-01T10:11:29Z</time></trkpt><trkpt lat="43.065647521363836" lon="-0.035593878933374255"><ele>413.0</ele><time>2026-04-01T10:11:30Z</time></trkpt><trkpt lat="43.06558259791387" lon="-0.03547708465508168"><ele>414.5</ele><time>2026-04-01T10:11:30.999Z</time></trkpt><trkpt lat="43.06551209513897" lon="-0.03535599775496399"><ele>416.0</ele><time>2026-04-01T10:11:32Z</time></trkpt><trkpt lat="43.065433924852705" lon="-0.035238505567359565"><ele>417.5</ele><time>2026-04-01T10:11:32.999Z</time></trkpt><trkpt lat="43.06535315866222" lon="-0.03512103173566055"><ele>419.0</ele><time>2026-04-01T10:11:33.999Z</time></trkpt><trkpt lat="43.065266576248014" lon="-0.035016391315383456"><ele>418.79999999999995</ele><time>2026-04-01T10:11:34.999Z</time></trkpt><trkpt lat="43.0651819030357" lon="-0.03491505912423933"><ele>418.59999999999997</ele><time>2026-04-01T10:11:35.999Z</time></trkpt><trkpt lat="43.06509529177552" lon="-0.03481730591728337"><ele>418.4</ele><time>2026-04-01T10:11:36.999Z</time></trkpt><trkpt lat="43.06501253992398" lon="-0.034724849531459344"><ele>418.2</ele><time>2026-04-01T10:11:37.999Z</time></trkpt><trkpt lat="43.06494111679181" lon="-0.03465053493639745"><ele>418.0</ele><time>2026-04-01T10:11:38.999Z</time></trkpt><trkpt lat="43.06487393762218" lon="-0.03458181306474306"><ele>418.2</ele><time>2026-04-01T10:11:39.999Z</time></trkpt><trkpt lat="43.064818346943284" lon="-0.03452201782875431"><ele>418.4</ele><time>2026-04-01T10:11:40.999Z</time></trkpt><trkpt lat="43.06476617988186" lon="-0.03446797170873408"><ele>418.59999999999997</ele><time>2026-04-01T10:11:41.999Z</time></trkpt><trkpt lat="43.064681733716014" lon="-0.034357095890202013"><ele>418.79999999999995</ele><time>2026-04-01T10:11:43.999Z</time></trkpt><trkpt lat="43.064668427300305" lon="-0.034190817030786816"><ele>419.0</ele><time>2026-04-01T10:11:45.999Z</time></trkpt><trkpt lat="43.064692212885795" lon="-0.03408107599832006"><ele>419.0</ele><time>2026-04-01T10:11:46.999Z</time></trkpt><trkpt lat="43.06468797108213" lon="-0.03397214033996426"><ele>419.0</ele><time>2026-04-01T10:11:47.999Z</time></trkpt><trkpt lat="43.06462394796496" lon="-0.03389529083969399"><ele>419.0</ele><time>2026-04-01T10:11:48.999Z</time></trkpt><trkpt lat="43.06457826310864" lon="-0.03378610395508708"><ele>419.0</ele><time>2026-04-01T10:11:49.999Z</time></trkpt><trkpt lat="43.064522656171285" lon="-0.033687406875644706"><ele>419.0</ele><time>2026-04-01T10:11:50.999Z</time></trkpt><trkpt lat="43.06447081057801" lon="-0.03355842192589244"><ele>419.0</ele><time>2026-04-01T10:11:51.999Z</time></trkpt><trkpt lat="43.064414295221745" lon="-0.033399069964654804"><ele>419.0</ele><time>2026-04-01T10:11:52.999Z</time></trkpt><trkpt lat="43.064360725892584" lon="-0.033208578144813775"><ele>419.0</ele><time>2026-04-01T10:11:53.999Z</time></trkpt><trkpt lat="43.0643112643954" lon="-0.03300507913457993"><ele>419.0</ele><time>2026-04-01T10:11:54.999Z</time></trkpt><trkpt lat="43.064267660929524" lon="-0.032816644123571416"><ele>419.0</ele><time>2026-04-01T10:11:55.999Z</time></trkpt><trkpt lat="43.06422822230692" lon="-0.032625931692032616"><ele>419.0</ele><time>2026-04-01T10:11:56.999Z</time></trkpt><trkpt lat="43.06419342492333" lon="-0.03243332651272629"><ele>419.0</ele><time>2026-04-01T10:11:57.999Z</time></trkpt><trkpt lat="43.06415335715003" lon="-0.03223111829167511"><ele>419.0</ele><time>2026-04-01T10:11:58.999Z</time></trkpt><trkpt lat="43.06409766211821" lon="-0.031996187285023146"><ele>419.0</ele><time>2026-04-01T10:11:59.999Z</time></trkpt><trkpt lat="43.06402073899898" lon="-0.031782682288574705"><ele>419.0</ele><time>2026-04-01T10:12:00.999Z</time></trkpt><trkpt lat="43.06392500762838" lon="-0.031582861724504724"><ele>419.0</ele><time>2026-04-01T10:12:01.999Z</time></trkpt><trkpt lat="43.06382154091551" lon="-0.03139038268352005"><ele>420.0</ele><time>2026-04-01T10:12:02.999Z</time></trkpt><trkpt lat="43.06371640423541" lon="-0.031201092388513995"><ele>421.0</ele><time>2026-04-01T10:12:03.999Z</time></trkpt><trkpt lat="43.06360712689234" lon="-0.031017155677760293"><ele>422.0</ele><time>2026-04-01T10:12:04.999Z</time></trkpt><trkpt lat="43.063488934967346" lon="-0.03082316159255511"><ele>422.0</ele><time>2026-04-01T10:12:05.999Z</time></trkpt><trkpt lat="43.063358363242415" lon="-0.030617238532726413"><ele>422.0</ele><time>2026-04-01T10:12:06.999Z</time></trkpt><trkpt lat="43.06322683217565" lon="-0.030434747057579713"><ele>422.0</ele><time>2026-04-01T10:12:07.999Z</time></trkpt><trkpt lat="43.06310049229626" lon="-0.030276504338439893"><ele>422.0</ele><time>2026-04-01T10:12:08.999Z</time></trkpt><trkpt lat="43.06298367475192" lon="-0.03013648789195863"><ele>422.0</ele><time>2026-04-01T10:12:09.999Z</time></trkpt><trkpt lat="43.06286740681503" lon="-0.030006322037332504"><ele>422.0</ele><time>2026-04-01T10:12:10.999Z</time></trkpt><trkpt lat="43.06275449960742" lon="-0.029883571555760543"><ele>422.5</ele><time>2026-04-01T10:12:11.999Z</time></trkpt><trkpt lat="43.06264003376666" lon="-0.029734604453690024"><ele>423.0</ele><time>2026-04-01T10:12:12.999Z</time></trkpt><trkpt lat="43.06254696266144" lon="-0.02962680352579184"><ele>423.5</ele><time>2026-04-01T10:12:13.999Z</time></trkpt><trkpt lat="43.062467218388434" lon="-0.02952216416183234"><ele>424.0</ele><time>2026-04-01T10:12:14.999Z</time></trkpt><trkpt lat="43.06239343074569" lon="-0.02938444940462208"><ele>424.0</ele><time>2026-04-01T10:12:15.999Z</time></trkpt><trkpt lat="43.06232833407342" lon="-0.029215212824835662"><ele>424.0</ele><time>2026-04-01T10:12:16.999Z</time></trkpt><trkpt lat="43.06226902003119" lon="-0.029042047136968445"><ele>424.0</ele><time>2026-04-01T10:12:17.999Z</time></trkpt><trkpt lat="43.06219604652316" lon="-0.028878959444652633"><ele>424.0</ele><time>2026-04-01T10:12:18.999Z</time></trkpt><trkpt lat="43.06208398253743" lon="-0.028759856316121324"><ele>428.0</ele><time>2026-04-01T10:12:19.999Z</time></trkpt><trkpt lat="43.061974683864115" lon="-0.028631005309333307"><ele>432.0</ele><time>2026-04-01T10:12:20.999Z</time></trkpt><trkpt lat="43.061878452098384" lon="-0.02849184018631296"><ele>436.0</ele><time>2026-04-01T10:12:21.999Z</time></trkpt><trkpt lat="43.061777270253884" lon="-0.028390119382058557"><ele>440.0</ele><time>2026-04-01T10:12:22.999Z</time></trkpt><trkpt lat="43.06166519526058" lon="-0.028343599386034462"><ele>441.16666666666663</ele><time>2026-04-01T10:12:23.999Z</time></trkpt><trkpt lat="43.061566276573444" lon="-0.028300877954009235"><ele>442.3333333333333</ele><time>2026-04-01T10:12:24.999Z</time></trkpt><trkpt lat="43.06147464006144" lon="-0.028301266939564917"><ele>443.5</ele><time>2026-04-01T10:12:25.999Z</time></trkpt><trkpt lat="43.06138117380748" lon="-0.02829001379089046"><ele>444.66666666666663</ele><time>2026-04-01T10:12:26.999Z</time></trkpt><trkpt lat="43.06129986774863" lon="-0.02825576940751622"><ele>445.8333333333333</ele><time>2026-04-01T10:12:27.999Z</time></trkpt><trkpt lat="43.06122604681293" lon="-0.028243848496186042"><ele>447.0</ele><time>2026-04-01T10:12:28.999Z</time></trkpt><trkpt lat="43.061162206531144" lon="-0.028232661000606802"><ele>447.0</ele><time>2026-04-01T10:12:29.999Z</time></trkpt><trkpt lat="43.06108902602456" lon="-0.028216576130341817"><ele>447.00000000000006</ele><time>2026-04-01T10:12:30.999Z</time></trkpt><trkpt lat="43.06100160458803" lon="-0.028194281046888495"><ele>447.00000000000006</ele><time>2026-04-01T10:12:31.999Z</time></trkpt><trkpt lat="43.060911739374966" lon="-0.02817013129548641"><ele>447.0</ele><time>2026-04-01T10:12:32.999Z</time></trkpt><trkpt lat="43.06081298517978" lon="-0.02814433917754431"><ele>447.0</ele><time>2026-04-01T10:12:33.999Z</time></trkpt><trkpt lat="43.06070742362396" lon="-0.028053488482940262"><ele>443.5</ele><time>2026-04-01T10:12:34.999Z</time></trkpt><trkpt lat="43.06061282056581" lon="-0.027955883811700798"><ele>440.0</ele><time>2026-04-01T10:12:35.999Z</time></trkpt><trkpt lat="43.06054268482788" lon="-0.02782568355342316"><ele>436.5</ele><time>2026-04-01T10:12:36.999Z</time></trkpt><trkpt lat="43.060484526743444" lon="-0.02767665996324135"><ele>433.0</ele><time>2026-04-01T10:12:37.999Z</time></trkpt><trkpt lat="43.06044062581818" lon="-0.027510065247433317"><ele>434.0</ele><time>2026-04-01T10:12:38.999Z</time></trkpt><trkpt lat="43.06038421503641" lon="-0.02734234406884824"><ele>435.0</ele><time>2026-04-01T10:12:39.999Z</time></trkpt><trkpt lat="43.06031019275753" lon="-0.02717709632938311"><ele>436.0</ele><time>2026-04-01T10:12:40.999Z</time></trkpt><trkpt lat="43.060225710208734" lon="-0.0270131416520831"><ele>437.0</ele><time>2026-04-01T10:12:41.999Z</time></trkpt><trkpt lat="43.06014046086587" lon="-0.02685353752908013"><ele>437.0</ele><time>2026-04-01T10:12:42.999Z</time></trkpt><trkpt lat="43.06006577753759" lon="-0.026720834060043257"><ele>437.00000000000006</ele><time>2026-04-01T10:12:43.999Z</time></trkpt><trkpt lat="43.059996243312305" lon="-0.02660773866041089"><ele>437.00000000000006</ele><time>2026-04-01T10:12:44.999Z</time></trkpt><trkpt lat="43.05992004799982" lon="-0.026507331795934043"><ele>437.0</ele><time>2026-04-01T10:12:46Z</time></trkpt><trkpt lat="43.059832362934465" lon="-0.02641463796995758"><ele>437.0</ele><time>2026-04-01T10:12:47Z</time></trkpt><trkpt lat="43.05973277748979" lon="-0.02633466825255607"><ele>434.75</ele><time>2026-04-01T10:12:48Z</time></trkpt><trkpt lat="43.059622289139924" lon="-0.026264013700757687"><ele>432.5</ele><time>2026-04-01T10:12:49Z</time></trkpt><trkpt lat="43.059503406547876" lon="-0.026205917678585995"><ele>430.25</ele><time>2026-04-01T10:12:50Z</time></trkpt><trkpt lat="43.05938559357792" lon="-0.026152614086308364"><ele>428.0</ele><time>2026-04-01T10:12:51Z</time></trkpt><trkpt lat="43.059275966300056" lon="-0.026079343367976297"><ele>428.0</ele><time>2026-04-01T10:12:52Z</time></trkpt><trkpt lat="43.05918381946581" lon="-0.025980821993152894"><ele>427.99999999999994</ele><time>2026-04-01T10:12:53Z</time></trkpt><trkpt lat="43.059112546517724" lon="-0.025858426178436922"><ele>427.99999999999994</ele><time>2026-04-01T10:12:54Z</time></trkpt><trkpt lat="43.05906528663491" lon="-0.025724599884807058"><ele>428.0</ele><time>2026-04-01T10:12:55Z</time></trkpt><trkpt lat="43.059041971077455" lon="-0.02558599686852168"><ele>428.0</ele><time>2026-04-01T10:12:56Z</time></trkpt><trkpt lat="43.05903334354354" lon="-0.025417267425657645"><ele>430.75</ele><time>2026-04-01T10:12:57Z</time></trkpt><trkpt lat="43.0590059108064" lon="-0.025236579914850035"><ele>433.5</ele><time>2026-04-01T10:12:58Z</time></trkpt><trkpt lat="43.058996389178894" lon="-0.025052764975389608"><ele>436.25</ele><time>2026-04-01T10:12:59Z</time></trkpt><trkpt lat="43.05897075792903" lon="-0.024873758409332813"><ele>439.0</ele><time>2026-04-01T10:13:00Z</time></trkpt><trkpt lat="43.058943357792934" lon="-0.024709713166644824"><ele>439.0</ele><time>2026-04-01T10:13:01Z</time></trkpt><trkpt lat="43.05892134858169" lon="-0.024569437261162987"><ele>439.0</ele><time>2026-04-01T10:13:02Z</time></trkpt><trkpt lat="43.05890294710634" lon="-0.024451568204808437"><ele>439.0</ele><time>2026-04-01T10:13:03Z</time></trkpt><trkpt lat="43.05888326660433" lon="-0.024357257881946422"><ele>439.0</ele><time>2026-04-01T10:13:04Z</time></trkpt><trkpt lat="43.05885154304287" lon="-0.024204284564074485"><ele>439.0</ele><time>2026-04-01T10:13:06Z</time></trkpt><trkpt lat="43.05882984484131" lon="-0.024113233098980176"><ele>438.2</ele><time>2026-04-01T10:13:07Z</time></trkpt><trkpt lat="43.05881337714314" lon="-0.024002044367866217"><ele>437.4</ele><time>2026-04-01T10:13:08Z</time></trkpt><trkpt lat="43.05880546214368" lon="-0.023865168591459793"><ele>436.6</ele><time>2026-04-01T10:13:09Z</time></trkpt><trkpt lat="43.05881547679436" lon="-0.023732038943610215"><ele>435.8</ele><time>2026-04-01T10:13:10Z</time></trkpt><trkpt lat="43.05883097060494" lon="-0.023588191836082108"><ele>435.0</ele><time>2026-04-01T10:13:11Z</time></trkpt><trkpt lat="43.0588447716239" lon="-0.023430493368876145"><ele>434.25</ele><time>2026-04-01T10:13:12Z</time></trkpt><trkpt lat="43.05885297289844" lon="-0.023234243154296834"><ele>433.5</ele><time>2026-04-01T10:13:13Z</time></trkpt><trkpt lat="43.05884877295145" lon="-0.023042412157456872"><ele>432.75</ele><time>2026-04-01T10:13:14Z</time></trkpt><trkpt lat="43.058836904648125" lon="-0.022873207371272377"><ele>432.0</ele><time>2026-04-01T10:13:15Z</time></trkpt><trkpt lat="43.05882149283048" lon="-0.022714073688371656"><ele>432.0</ele><time>2026-04-01T10:13:16Z</time></trkpt><trkpt lat="43.05880697010159" lon="-0.022558100875745963"><ele>432.0</ele><time>2026-04-01T10:13:17Z</time></trkpt><trkpt lat="43.05878695934569" lon="-0.02240162289735723"><ele>432.0</ele><time>2026-04-01T10:13:18Z</time></trkpt><trkpt lat="43.058756581167856" lon="-0.022247808931727227"><ele>432.0</ele><time>2026-04-01T10:13:19Z</time></trkpt><trkpt lat="43.05871540315375" lon="-0.022101670853830503"><ele>433.1666666666667</ele><time>2026-04-01T10:13:20Z</time></trkpt><trkpt lat="43.058666953204536" lon="-0.02198313777263806"><ele>434.33333333333337</ele><time>2026-04-01T10:13:21Z</time></trkpt><trkpt lat="43.05862403781283" lon="-0.02188643847638743"><ele>435.5</ele><time>2026-04-01T10:13:22Z</time></trkpt><trkpt lat="43.05856916129235" lon="-0.02181870705050794"><ele>436.6666666666667</ele><time>2026-04-01T10:13:23Z</time></trkpt><trkpt lat="43.058508036892384" lon="-0.021733161303370756"><ele>437.83333333333337</ele><time>2026-04-01T10:13:24Z</time></trkpt><trkpt lat="43.058433640953204" lon="-0.021636953745415823"><ele>439.0</ele><time>2026-04-01T10:13:25Z</time></trkpt><trkpt lat="43.058354608655435" lon="-0.02153125336223999"><ele>440.0</ele><time>2026-04-01T10:13:26Z</time></trkpt><trkpt lat="43.05830072240745" lon="-0.021429917493504078"><ele>441.0</ele><time>2026-04-01T10:13:27Z</time></trkpt><trkpt lat="43.05823200854157" lon="-0.021355764124269993"><ele>442.0</ele><time>2026-04-01T10:13:28Z</time></trkpt><trkpt lat="43.05815805835993" lon="-0.021264753538323647"><ele>443.0</ele><time>2026-04-01T10:13:29Z</time></trkpt><trkpt lat="43.058057728228874" lon="-0.021150041615019897"><ele>444.0</ele><time>2026-04-01T10:13:30Z</time></trkpt><trkpt lat="43.057933998989405" lon="-0.021017977249467693"><ele>444.0</ele><time>2026-04-01T10:13:31Z</time></trkpt><trkpt lat="43.05780045235006" lon="-0.02088318296110034"><ele>444.0</ele><time>2026-04-01T10:13:32Z</time></trkpt><trkpt lat="43.05766551631416" lon="-0.02074837033499396"><ele>444.0</ele><time>2026-04-01T10:13:33Z</time></trkpt><trkpt lat="43.05752389474457" lon="-0.02066305570782887"><ele>449.5</ele><time>2026-04-01T10:13:34Z</time></trkpt><trkpt lat="43.057402244930266" lon="-0.020575481168546333"><ele>455.0</ele><time>2026-04-01T10:13:35Z</time></trkpt><trkpt lat="43.05731208474855" lon="-0.020473878508452746"><ele>460.5</ele><time>2026-04-01T10:13:36Z</time></trkpt><trkpt lat="43.05726272932148" lon="-0.0203430934706452"><ele>466.0</ele><time>2026-04-01T10:13:37Z</time></trkpt><trkpt lat="43.05725311973062" lon="-0.02018581399158889"><ele>466.0</ele><time>2026-04-01T10:13:38Z</time></trkpt><trkpt lat="43.05727468747563" lon="-0.020019825590982723"><ele>466.0</ele><time>2026-04-01T10:13:39Z</time></trkpt><trkpt lat="43.05731383554189" lon="-0.01984406786606647"><ele>466.0</ele><time>2026-04-01T10:13:40Z</time></trkpt><trkpt lat="43.05734849190267" lon="-0.01964351036917788"><ele>466.0</ele><time>2026-04-01T10:13:41Z</time></trkpt><trkpt lat="43.057377108247486" lon="-0.019423791884013036"><ele>465.75</ele><time>2026-04-01T10:13:42Z</time></trkpt><trkpt lat="43.05739898612651" lon="-0.01920378941741341"><ele>465.5</ele><time>2026-04-01T10:13:43Z</time></trkpt><trkpt lat="43.05740745069644" lon="-0.01900577043506098"><ele>465.25</ele><time>2026-04-01T10:13:44Z</time></trkpt><trkpt lat="43.05737199493145" lon="-0.01883108985897845"><ele>465.0</ele><time>2026-04-01T10:13:45Z</time></trkpt><trkpt lat="43.057318756125" lon="-0.018673101303323423"><ele>463.0</ele><time>2026-04-01T10:13:46Z</time></trkpt><trkpt lat="43.05725918209613" lon="-0.018490984139868282"><ele>461.0</ele><time>2026-04-01T10:13:47Z</time></trkpt><trkpt lat="43.0571563268029" lon="-0.018323367010730354"><ele>459.0</ele><time>2026-04-01T10:13:48Z</time></trkpt><trkpt lat="43.05703638901744" lon="-0.018163336489881783"><ele>456.0</ele><time>2026-04-01T10:13:49Z</time></trkpt><trkpt lat="43.05691899568578" lon="-0.018005404834017222"><ele>453.0</ele><time>2026-04-01T10:13:50Z</time></trkpt><trkpt lat="43.05682570503511" lon="-0.017820116712907213"><ele>450.0</ele><time>2026-04-01T10:13:51Z</time></trkpt><trkpt lat="43.05675796360478" lon="-0.017616927605765362"><ele>451.75</ele><time>2026-04-01T10:13:52Z</time></trkpt><trkpt lat="43.056704791882346" lon="-0.01741815600382772"><ele>453.5</ele><time>2026-04-01T10:13:53Z</time></trkpt><trkpt lat="43.056668705369496" lon="-0.017226925767204165"><ele>455.25</ele><time>2026-04-01T10:13:54Z</time></trkpt><trkpt lat="43.05666086269268" lon="-0.017039159748130007"><ele>457.0</ele><time>2026-04-01T10:13:55Z</time></trkpt><trkpt lat="43.05667858341231" lon="-0.01685035429974593"><ele>457.0</ele><time>2026-04-01T10:13:56Z</time></trkpt><trkpt lat="43.05666470876477" lon="-0.016646038082303218"><ele>457.0</ele><time>2026-04-01T10:13:57Z</time></trkpt><trkpt lat="43.05663940239189" lon="-0.016429350121928307"><ele>457.0</ele><time>2026-04-01T10:13:58Z</time></trkpt><trkpt lat="43.056594254811394" lon="-0.016226811432858698"><ele>457.0</ele><time>2026-04-01T10:13:59Z</time></trkpt><trkpt lat="43.0565504705175" lon="-0.016008453827861497"><ele>457.0</ele><time>2026-04-01T10:14:00Z</time></trkpt><trkpt lat="43.05648780253834" lon="-0.015786623895205288"><ele>457.0</ele><time>2026-04-01T10:14:01Z</time></trkpt><trkpt lat="43.05641272101788" lon="-0.015558331326856962"><ele>456.0</ele><time>2026-04-01T10:14:02Z</time></trkpt><trkpt lat="43.056326195502756" lon="-0.01532607403249822"><ele>455.0</ele><time>2026-04-01T10:14:03Z</time></trkpt><trkpt lat="43.05623578406002" lon="-0.015096530112216936"><ele>454.0</ele><time>2026-04-01T10:14:04Z</time></trkpt><trkpt lat="43.056157258533986" lon="-0.014862005330156828"><ele>456.0</ele><time>2026-04-01T10:14:05Z</time></trkpt><trkpt lat="43.0560868544724" lon="-0.014631665597231816"><ele>458.0</ele><time>2026-04-01T10:14:06Z</time></trkpt><trkpt lat="43.05600602562967" lon="-0.014410270584693198"><ele>460.0</ele><time>2026-04-01T10:14:07Z</time></trkpt><trkpt lat="43.05591712662382" lon="-0.01419470517244929"><ele>460.6666666666667</ele><time>2026-04-01T10:14:08Z</time></trkpt><trkpt lat="43.05583006386451" lon="-0.01398597989272321"><ele>461.33333333333337</ele><time>2026-04-01T10:14:09Z</time></trkpt><trkpt lat="43.055752783847815" lon="-0.013808054301622978"><ele>462.0</ele><time>2026-04-01T10:14:10Z</time></trkpt><trkpt lat="43.055681502296714" lon="-0.013644237246457568"><ele>462.0</ele><time>2026-04-01T10:14:11Z</time></trkpt><trkpt lat="43.0556042423139" lon="-0.013508698863624408"><ele>462.0</ele><time>2026-04-01T10:14:12Z</time></trkpt><trkpt lat="43.055495953386725" lon="-0.013458994830069609"><ele>462.0</ele><time>2026-04-01T10:14:13Z</time></trkpt><trkpt lat="43.0553765637125" lon="-0.013366392814238537"><ele>462.0</ele><time>2026-04-01T10:14:14Z</time></trkpt><trkpt lat="43.0552206622726" lon="-0.013294989045126705"><ele>463.0</ele><time>2026-04-01T10:14:15Z</time></trkpt><trkpt lat="43.05505009427415" lon="-0.01319579198282124"><ele>464.0</ele><time>2026-04-01T10:14:16Z</time></trkpt><trkpt lat="43.05489032080512" lon="-0.013082510966837326"><ele>465.0</ele><time>2026-04-01T10:14:17Z</time></trkpt><trkpt lat="43.054746702195715" lon="-0.012950738566243227"><ele>465.0</ele><time>2026-04-01T10:14:18Z</time></trkpt><trkpt lat="43.05461030538698" lon="-0.012808227822133715"><ele>465.0</ele><time>2026-04-01T10:14:19Z</time></trkpt><trkpt lat="43.05448519015539" lon="-0.012660250670440293"><ele>465.0</ele><time>2026-04-01T10:14:20Z</time></trkpt><trkpt lat="43.05436972180868" lon="-0.012510807051707618"><ele>465.25</ele><time>2026-04-01T10:14:21Z</time></trkpt><trkpt lat="43.054281035414164" lon="-0.0123442488938867"><ele>465.5</ele><time>2026-04-01T10:14:22Z</time></trkpt><trkpt lat="43.05422009147382" lon="-0.012157868856252408"><ele>465.75</ele><time>2026-04-01T10:14:23Z</time></trkpt><trkpt lat="43.054185791625116" lon="-0.011958418098787735"><ele>466.0</ele><time>2026-04-01T10:14:24Z</time></trkpt><trkpt lat="43.0541647155363" lon="-0.011737616973359651"><ele>468.0</ele><time>2026-04-01T10:14:25Z</time></trkpt><trkpt lat="43.05414283970388" lon="-0.011490932004572381"><ele>470.0</ele><time>2026-04-01T10:14:26Z</time></trkpt><trkpt lat="43.0541223910642" lon="-0.011227187217417797"><ele>472.0</ele><time>2026-04-01T10:14:27Z</time></trkpt><trkpt lat="43.05409912010138" lon="-0.010951727163010521"><ele>468.33333333333337</ele><time>2026-04-01T10:14:28Z</time></trkpt><trkpt lat="43.05406935412017" lon="-0.010673632892296357"><ele>464.66666666666663</ele><time>2026-04-01T10:14:29Z</time></trkpt><trkpt lat="43.05403348132186" lon="-0.010405783947863886"><ele>461.0</ele><time>2026-04-01T10:14:30Z</time></trkpt><trkpt lat="43.05398518878027" lon="-0.01015312968181323"><ele>461.3333333333333</ele><time>2026-04-01T10:14:31Z</time></trkpt><trkpt lat="43.05393601005417" lon="-0.009916180019225607"><ele>461.66666666666663</ele><time>2026-04-01T10:14:32Z</time></trkpt><trkpt lat="43.05388927298769" lon="-0.00969330906692932"><ele>462.0</ele><time>2026-04-01T10:14:33Z</time></trkpt><trkpt lat="43.05385018800133" lon="-0.009470865573850596"><ele>462.0</ele><time>2026-04-01T10:14:34Z</time></trkpt><trkpt lat="43.053827255734525" lon="-0.009254097443710542"><ele>462.0</ele><time>2026-04-01T10:14:35Z</time></trkpt><trkpt lat="43.05380685923619" lon="-0.009022449035686124"><ele>462.0</ele><time>2026-04-01T10:14:36Z</time></trkpt><trkpt lat="43.05378987808084" lon="-0.008783865436434031"><ele>461.66666666666663</ele><time>2026-04-01T10:14:37Z</time></trkpt><trkpt lat="43.053770582467685" lon="-0.008531199580637822"><ele>461.3333333333333</ele><time>2026-04-01T10:14:38Z</time></trkpt><trkpt lat="43.05375575236663" lon="-0.008287942787212706"><ele>461.0</ele><time>2026-04-01T10:14:39Z</time></trkpt><trkpt lat="43.05374901145053" lon="-0.00804653907141752"><ele>462.66666666666663</ele><time>2026-04-01T10:14:40Z</time></trkpt><trkpt lat="43.053762105879734" lon="-0.00781281962371626"><ele>464.33333333333337</ele><time>2026-04-01T10:14:41Z</time></trkpt><trkpt lat="43.05380227477745" lon="-0.007586561736502085"><ele>466.0</ele><time>2026-04-01T10:14:42Z</time></trkpt><trkpt lat="43.05387283120846" lon="-0.007375679749439616"><ele>466.6666666666667</ele><time>2026-04-01T10:14:43Z</time></trkpt><trkpt lat="43.05392732830762" lon="-0.007138089893871486"><ele>467.33333333333337</ele><time>2026-04-01T10:14:44Z</time></trkpt><trkpt lat="43.05398746684162" lon="-0.006892569799058108"><ele>468.0</ele><time>2026-04-01T10:14:45Z</time></trkpt><trkpt lat="43.05403980647607" lon="-0.00667563225208649"><ele>468.25</ele><time>2026-04-01T10:14:46Z</time></trkpt><trkpt lat="43.05409213698229" lon="-0.0064839521637521215"><ele>468.5</ele><time>2026-04-01T10:14:47Z</time></trkpt><trkpt lat="43.05410144568806" lon="-0.006301369977833363"><ele>468.75</ele><time>2026-04-01T10:14:48Z</time></trkpt><trkpt lat="43.05405386374753" lon="-0.0061211586707514715"><ele>469.0</ele><time>2026-04-01T10:14:49Z</time></trkpt><trkpt lat="43.05400888529263" lon="-0.005922383271093983"><ele>468.33333333333337</ele><time>2026-04-01T10:14:50Z</time></trkpt><trkpt lat="43.05395726259041" lon="-0.005709994241925814"><ele>467.66666666666663</ele><time>2026-04-01T10:14:51Z</time></trkpt><trkpt lat="43.05392564365261" lon="-0.00547208087241254"><ele>467.0</ele><time>2026-04-01T10:14:52Z</time></trkpt><trkpt lat="43.053891368110364" lon="-0.005228779514978601"><ele>467.0</ele><time>2026-04-01T10:14:53Z</time></trkpt><trkpt lat="43.0538568908479" lon="-0.005001957135115416"><ele>467.0</ele><time>2026-04-01T10:14:54Z</time></trkpt><trkpt lat="43.0537903807054" lon="-0.004781796387239578"><ele>467.0</ele><time>2026-04-01T10:14:55Z</time></trkpt><trkpt lat="43.05372204291662" lon="-0.004577679837534956"><ele>467.5</ele><time>2026-04-01T10:14:56Z</time></trkpt><trkpt lat="43.05363576860322" lon="-0.004387414375745917"><ele>468.0</ele><time>2026-04-01T10:14:57Z</time></trkpt><trkpt lat="43.05355921283625" lon="-0.004227311944502085"><ele>468.5</ele><time>2026-04-01T10:14:58Z</time></trkpt><trkpt lat="43.05347068058708" lon="-0.004104031163176321"><ele>469.0</ele><time>2026-04-01T10:14:59Z</time></trkpt><trkpt lat="43.05342686484733" lon="-0.003953061431221207"><ele>470.6666666666667</ele><time>2026-04-01T10:15:00Z</time></trkpt><trkpt lat="43.05342506919708" lon="-0.0037628784810976607"><ele>472.33333333333337</ele><time>2026-04-01T10:15:01Z</time></trkpt><trkpt lat="43.05343902041866" lon="-0.0035385315465599025"><ele>474.0</ele><time>2026-04-01T10:15:02Z</time></trkpt><trkpt lat="43.0534515995926" lon="-0.0032799473506250937"><ele>474.0</ele><time>2026-04-01T10:15:03Z</time></trkpt><trkpt lat="43.053451293335876" lon="-0.003004896996387027"><ele>474.0</ele><time>2026-04-01T10:15:04Z</time></trkpt><trkpt lat="43.05345156619246" lon="-0.0027429961913253372"><ele>474.0</ele><time>2026-04-01T10:15:05Z</time></trkpt><trkpt lat="43.053447296597604" lon="-0.002495716534471632"><ele>474.66666666666663</ele><time>2026-04-01T10:15:06Z</time></trkpt><trkpt lat="43.05344061248871" lon="-0.0022503445316817135"><ele>475.3333333333333</ele><time>2026-04-01T10:15:07Z</time></trkpt><trkpt lat="43.05343831289456" lon="-0.0019950418246079296"><ele>476.0</ele><time>2026-04-01T10:15:08Z</time></trkpt><trkpt lat="43.05343334650055" lon="-0.0017319683193863105"><ele>476.66666666666663</ele><time>2026-04-01T10:15:09Z</time></trkpt><trkpt lat="43.053418012459844" lon="-0.0014801639111609907"><ele>477.33333333333337</ele><time>2026-04-01T10:15:10Z</time></trkpt><trkpt lat="43.053398898795045" lon="-0.0012385068784937705"><ele>478.0</ele><time>2026-04-01T10:15:11Z</time></trkpt><trkpt lat="43.05338852675973" lon="-0.001022719624243952"><ele>479.5</ele><time>2026-04-01T10:15:12Z</time></trkpt><trkpt lat="43.05338796254603" lon="-8.177474557261386E-4"><ele>481.0</ele><time>2026-04-01T10:15:13Z</time></trkpt><trkpt lat="43.053395951994645" lon="-6.26961792318744E-4"><ele>482.5</ele><time>2026-04-01T10:15:14Z</time></trkpt><trkpt lat="43.053404496373396" lon="-4.588174996479236E-4"><ele>484.0</ele><time>2026-04-01T10:15:15Z</time></trkpt><trkpt lat="43.053408797029576" lon="-3.143980445028909E-4"><ele>484.00000000000006</ele><time>2026-04-01T10:15:16Z</time></trkpt><trkpt lat="43.0534196051279" lon="-1.9089561975112017E-4"><ele>484.0</ele><time>2026-04-01T10:15:17Z</time></trkpt><trkpt lat="43.0534469043984" lon="-6.67791474404487E-5"><ele>484.0</ele><time>2026-04-01T10:15:18Z</time></trkpt><trkpt lat="43.05350395554847" lon="3.454607567214841E-5"><ele>484.0</ele><time>2026-04-01T10:15:19Z</time></trkpt><trkpt lat="43.053569944213656" lon="1.1091497463315443E-4"><ele>484.00000000000006</ele><time>2026-04-01T10:15:20Z</time></trkpt><trkpt lat="43.053591150511465" lon="2.1271251285368112E-4"><ele>484.0</ele><time>2026-04-01T10:15:21Z</time></trkpt><trkpt lat="43.05360105508789" lon="3.278816487402169E-4"><ele>484.0</ele><time>2026-04-01T10:15:22Z</time></trkpt><trkpt lat="43.05355435740783" lon="4.7140193535094886E-4"><ele>484.0</ele><time>2026-04-01T10:15:23Z</time></trkpt><trkpt lat="43.05353386315669" lon="6.294692531607322E-4"><ele>484.0</ele><time>2026-04-01T10:15:24Z</time></trkpt><trkpt lat="43.05349199912055" lon="7.782016623781492E-4"><ele>484.0</ele><time>2026-04-01T10:15:25Z</time></trkpt><trkpt lat="43.05345125575916" lon="9.301855402610789E-4"><ele>484.2</ele><time>2026-04-01T10:15:26Z</time></trkpt><trkpt lat="43.053409483660786" lon="0.001056156193324355"><ele>484.4</ele><time>2026-04-01T10:15:27Z</time></trkpt><trkpt lat="43.05334453109256" lon="0.0011475292642988343"><ele>484.6</ele><time>2026-04-01T10:15:28Z</time></trkpt><trkpt lat="43.05328581481688" lon="0.0012696239457961403"><ele>484.8</ele><time>2026-04-01T10:15:29Z</time></trkpt><trkpt lat="43.05323318816146" lon="0.0014192885231710899"><ele>485.0</ele><time>2026-04-01T10:15:30Z</time></trkpt><trkpt lat="43.05317253826163" lon="0.0015592634438787386"><ele>490.0</ele><time>2026-04-01T10:15:31Z</time></trkpt><trkpt lat="43.05312271292559" lon="0.0017084097467191918"><ele>495.0</ele><time>2026-04-01T10:15:32Z</time></trkpt><trkpt lat="43.053090067523016" lon="0.0018689470158132872"><ele>500.0</ele><time>2026-04-01T10:15:33Z</time></trkpt><trkpt lat="43.053050338352016" lon="0.0020338834356529016"><ele>505.0</ele><time>2026-04-01T10:15:34Z</time></trkpt><trkpt lat="43.05301533568674" lon="0.0022038948369030717"><ele>505.0</ele><time>2026-04-01T10:15:35Z</time></trkpt><trkpt lat="43.05295878300223" lon="0.0023641999430489293"><ele>505.0</ele><time>2026-04-01T10:15:36Z</time></trkpt><trkpt lat="43.052905985962944" lon="0.00252564849568274"><ele>505.0</ele><time>2026-04-01T10:15:37Z</time></trkpt><trkpt lat="43.052861361592" lon="0.002693439017146645"><ele>505.0</ele><time>2026-04-01T10:15:38Z</time></trkpt><trkpt lat="43.05280164010018" lon="0.0028577270186680415"><ele>504.6666666666667</ele><time>2026-04-01T10:15:39Z</time></trkpt><trkpt lat="43.052759044375904" lon="0.0030445385600244516"><ele>504.33333333333337</ele><time>2026-04-01T10:15:40Z</time></trkpt><trkpt lat="43.05271752716956" lon="0.003242225957783523"><ele>504.0</ele><time>2026-04-01T10:15:41Z</time></trkpt><trkpt lat="43.05267117694906" lon="0.003464944317931062"><ele>502.0</ele><time>2026-04-01T10:15:42Z</time></trkpt><trkpt lat="43.052614983769544" lon="0.0037216623129234755"><ele>500.0</ele><time>2026-04-01T10:15:43Z</time></trkpt><trkpt lat="43.052561657178806" lon="0.003947215853750501"><ele>498.0</ele><time>2026-04-01T10:15:44Z</time></trkpt><trkpt lat="43.05251214110134" lon="0.0041737845160588465"><ele>497.66666666666663</ele><time>2026-04-01T10:15:45Z</time></trkpt><trkpt lat="43.052481125605624" lon="0.004408038913530335"><ele>497.3333333333333</ele><time>2026-04-01T10:15:46Z</time></trkpt><trkpt lat="43.052470216056314" lon="0.00464343488129792"><ele>497.0</ele><time>2026-04-01T10:15:47Z</time></trkpt><trkpt lat="43.052462378931494" lon="0.004858291595933981"><ele>497.0</ele><time>2026-04-01T10:15:48Z</time></trkpt><trkpt lat="43.05246527719631" lon="0.005051751961991637"><ele>497.0</ele><time>2026-04-01T10:15:49Z</time></trkpt><trkpt lat="43.0524999611429" lon="0.005241541239152036"><ele>497.0</ele><time>2026-04-01T10:15:50Z</time></trkpt><trkpt lat="43.05257415728553" lon="0.005420540188902245"><ele>497.0</ele><time>2026-04-01T10:15:51Z</time></trkpt><trkpt lat="43.0526673593017" lon="0.005583467383227567"><ele>497.0</ele><time>2026-04-01T10:15:52Z</time></trkpt><trkpt lat="43.05274815485227" lon="0.005739331983874959"><ele>497.0</ele><time>2026-04-01T10:15:53Z</time></trkpt><trkpt lat="43.052790808246826" lon="0.005918237546530341"><ele>497.0</ele><time>2026-04-01T10:15:54Z</time></trkpt><trkpt lat="43.05279241998174" lon="0.006095394445673945"><ele>497.0</ele><time>2026-04-01T10:15:55Z</time></trkpt><trkpt lat="43.05274769418129" lon="0.006273606043604431"><ele>496.75</ele><time>2026-04-01T10:15:56Z</time></trkpt><trkpt lat="43.052738287809156" lon="0.006447414931690631"><ele>496.5</ele><time>2026-04-01T10:15:57Z</time></trkpt><trkpt lat="43.05273806380769" lon="0.006623545002521794"><ele>496.25</ele><time>2026-04-01T10:15:58Z</time></trkpt><trkpt lat="43.052725929008055" lon="0.006795240111418323"><ele>496.0</ele><time>2026-04-01T10:15:59Z</time></trkpt><trkpt lat="43.052739484832564" lon="0.0069526943216380215"><ele>495.8</ele><time>2026-04-01T10:16:00Z</time></trkpt><trkpt lat="43.0527863935563" lon="0.007085953084523436"><ele>495.6</ele><time>2026-04-01T10:16:01Z</time></trkpt><trkpt lat="43.052859143757246" lon="0.007186066510929101"><ele>495.4</ele><time>2026-04-01T10:16:02Z</time></trkpt><trkpt lat="43.05293803729347" lon="0.007288750881120874"><ele>495.2</ele><time>2026-04-01T10:16:03Z</time></trkpt><trkpt lat="43.05298532970696" lon="0.007405999833674083"><ele>495.0</ele><time>2026-04-01T10:16:04Z</time></trkpt><trkpt lat="43.0529815022485" lon="0.007546529876356712"><ele>495.0</ele><time>2026-04-01T10:16:05Z</time></trkpt><trkpt lat="43.05296580774876" lon="0.007669862247644135"><ele>495.0</ele><time>2026-04-01T10:16:06Z</time></trkpt><trkpt lat="43.05294289215529" lon="0.007831122253357081"><ele>495.0</ele><time>2026-04-01T10:16:07Z</time></trkpt><trkpt lat="43.052911887295416" lon="0.008013082450101723"><ele>495.0</ele><time>2026-04-01T10:16:08Z</time></trkpt><trkpt lat="43.05288099427915" lon="0.008219463930494341"><ele>494.66666666666663</ele><time>2026-04-01T10:16:09Z</time></trkpt><trkpt lat="43.052872860197475" lon="0.008440144418585158"><ele>494.3333333333333</ele><time>2026-04-01T10:16:10Z</time></trkpt><trkpt lat="43.052840687401755" lon="0.008665713832442995"><ele>494.0</ele><time>2026-04-01T10:16:11Z</time></trkpt><trkpt lat="43.05281063110232" lon="0.008891692980755489"><ele>494.0</ele><time>2026-04-01T10:16:12Z</time></trkpt><trkpt lat="43.05278967220138" lon="0.00910629216375548"><ele>494.0</ele><time>2026-04-01T10:16:13Z</time></trkpt><trkpt lat="43.05276705086717" lon="0.009319745843331142"><ele>494.0</ele><time>2026-04-01T10:16:14Z</time></trkpt><trkpt lat="43.05275338082077" lon="0.009519487037838066"><ele>496.0</ele><time>2026-04-01T10:16:15Z</time></trkpt><trkpt lat="43.052772331206704" lon="0.009701295926853776"><ele>498.0</ele><time>2026-04-01T10:16:16Z</time></trkpt><trkpt lat="43.052835262940214" lon="0.009872689339008723"><ele>500.0</ele><time>2026-04-01T10:16:17Z</time></trkpt><trkpt lat="43.052915287263815" lon="0.010044979739092165"><ele>502.0</ele><time>2026-04-01T10:16:18Z</time></trkpt><trkpt lat="43.05298529205024" lon="0.01023677472973665"><ele>503.33333333333337</ele><time>2026-04-01T10:16:19Z</time></trkpt><trkpt lat="43.05300454400517" lon="0.010457781082572634"><ele>504.66666666666663</ele><time>2026-04-01T10:16:20Z</time></trkpt><trkpt lat="43.05303934274077" lon="0.010682127424370504"><ele>506.0</ele><time>2026-04-01T10:16:21Z</time></trkpt><trkpt lat="43.05309546250789" lon="0.010903867382446409"><ele>508.0</ele><time>2026-04-01T10:16:22Z</time></trkpt><trkpt lat="43.05313639859895" lon="0.011133810213383312"><ele>510.0</ele><time>2026-04-01T10:16:23Z</time></trkpt><trkpt lat="43.05317316639142" lon="0.01135763067308675"><ele>512.0</ele><time>2026-04-01T10:16:24Z</time></trkpt><trkpt lat="43.05320409977456" lon="0.011555009250737559"><ele>512.6</ele><time>2026-04-01T10:16:25Z</time></trkpt><trkpt lat="43.053236764614304" lon="0.011730321601273764"><ele>513.2</ele><time>2026-04-01T10:16:26Z</time></trkpt><trkpt lat="43.053252731950664" lon="0.011886813873182663"><ele>513.8</ele><time>2026-04-01T10:16:27Z</time></trkpt><trkpt lat="43.05319703172194" lon="0.012011843559897577"><ele>514.4</ele><time>2026-04-01T10:16:28Z</time></trkpt><trkpt lat="43.05313631132578" lon="0.012110922583927066"><ele>515.0</ele><time>2026-04-01T10:16:29Z</time></trkpt><trkpt lat="43.053073257048545" lon="0.012221659301322865"><ele>515.0</ele><time>2026-04-01T10:16:30Z</time></trkpt><trkpt lat="43.052996445266515" lon="0.012318243143459688"><ele>515.0</ele><time>2026-04-01T10:16:31Z</time></trkpt><trkpt lat="43.05294043490747" lon="0.01244073799130297"><ele>515.0</ele><time>2026-04-01T10:16:32Z</time></trkpt><trkpt lat="43.05291638439642" lon="0.012583397490839948"><ele>515.0</ele><time>2026-04-01T10:16:33Z</time></trkpt><trkpt lat="43.05290547212111" lon="0.012750337188414899"><ele>515.0</ele><time>2026-04-01T10:16:34Z</time></trkpt><trkpt lat="43.052882231024014" lon="0.012922004502372596"><ele>515.4</ele><time>2026-04-01T10:16:35Z</time></trkpt><trkpt lat="43.052860607473875" lon="0.013084514201382114"><ele>515.8</ele><time>2026-04-01T10:16:36Z</time></trkpt><trkpt lat="43.052854600034976" lon="0.013233193814449366"><ele>516.2</ele><time>2026-04-01T10:16:37Z</time></trkpt><trkpt lat="43.052869301269965" lon="0.013369606306863596"><ele>516.6</ele><time>2026-04-01T10:16:38Z</time></trkpt><trkpt lat="43.05292342886588" lon="0.013468896264890026"><ele>517.0</ele><time>2026-04-01T10:16:39Z</time></trkpt><trkpt lat="43.053001171064835" lon="0.013520156623373506"><ele>518.0</ele><time>2026-04-01T10:16:40Z</time></trkpt><trkpt lat="43.05309335397488" lon="0.013552083438568879"><ele>519.0</ele><time>2026-04-01T10:16:41Z</time></trkpt><trkpt lat="43.05316823231272" lon="0.013638852765974372"><ele>520.0</ele><time>2026-04-01T10:16:42Z</time></trkpt><trkpt lat="43.053224769135284" lon="0.013735127661410482"><ele>521.0</ele><time>2026-04-01T10:16:43Z</time></trkpt><trkpt lat="43.05322196708231" lon="0.013835303813323731"><ele>522.0</ele><time>2026-04-01T10:16:44Z</time></trkpt><trkpt lat="43.053131644565056" lon="0.013910299251719703"><ele>522.0</ele><time>2026-04-01T10:16:46Z</time></trkpt><trkpt lat="43.053003232049306" lon="0.013908273928378569"><ele>522.0</ele><time>2026-04-01T10:16:48Z</time></trkpt><trkpt lat="43.05293468563056" lon="0.013972514382618869"><ele>522.0</ele><time>2026-04-01T10:16:49Z</time></trkpt><trkpt lat="43.05289800863787" lon="0.01408465382936846"><ele>522.0</ele><time>2026-04-01T10:16:50Z</time></trkpt><trkpt lat="43.05289659483072" lon="0.014230257166797393"><ele>522.0</ele><time>2026-04-01T10:16:51Z</time></trkpt><trkpt lat="43.05290530236783" lon="0.014406696129006354"><ele>523.25</ele><time>2026-04-01T10:16:52Z</time></trkpt><trkpt lat="43.05291815096249" lon="0.014582863106392323"><ele>524.5</ele><time>2026-04-01T10:16:53Z</time></trkpt><trkpt lat="43.052935209101236" lon="0.014763595946412973"><ele>525.75</ele><time>2026-04-01T10:16:54Z</time></trkpt><trkpt lat="43.05294940128062" lon="0.014954568185226842"><ele>527.0</ele><time>2026-04-01T10:16:55Z</time></trkpt><trkpt lat="43.052948262928815" lon="0.015144408707786276"><ele>529.0</ele><time>2026-04-01T10:16:56Z</time></trkpt><trkpt lat="43.052924715327165" lon="0.015324637668184048"><ele>531.0</ele><time>2026-04-01T10:16:57Z</time></trkpt><trkpt lat="43.052854338506094" lon="0.015470453389850586"><ele>533.0</ele><time>2026-04-01T10:16:58Z</time></trkpt><trkpt lat="43.05279260884639" lon="0.015614628887869896"><ele>535.0</ele><time>2026-04-01T10:16:59Z</time></trkpt><trkpt lat="43.05271458887421" lon="0.01572296170278409"><ele>535.0</ele><time>2026-04-01T10:17:00Z</time></trkpt><trkpt lat="43.05265452773308" lon="0.015809835583353995"><ele>535.0</ele><time>2026-04-01T10:17:01Z</time></trkpt><trkpt lat="43.052567384637165" lon="0.015928746142605848"><ele>535.0</ele><time>2026-04-01T10:17:03Z</time></trkpt><trkpt lat="43.05259231625654" lon="0.01607151548168068"><ele>535.0</ele><time>2026-04-01T10:17:04Z</time></trkpt><trkpt lat="43.05261699374605" lon="0.01621752901590676"><ele>535.0</ele><time>2026-04-01T10:17:05Z</time></trkpt><trkpt lat="43.05265190075006" lon="0.016382652563635157"><ele>537.5</ele><time>2026-04-01T10:17:06Z</time></trkpt><trkpt lat="43.05268085074964" lon="0.01652233726579032"><ele>540.0</ele><time>2026-04-01T10:17:07Z</time></trkpt><trkpt lat="43.05271446661538" lon="0.01667593387340992"><ele>542.5</ele><time>2026-04-01T10:17:08Z</time></trkpt><trkpt lat="43.05275707215284" lon="0.01686761634287382"><ele>545.0</ele><time>2026-04-01T10:17:09Z</time></trkpt><trkpt lat="43.05280835578618" lon="0.017064587319003514"><ele>549.0</ele><time>2026-04-01T10:17:10Z</time></trkpt><trkpt lat="43.05287373793252" lon="0.017279996637597207"><ele>553.0</ele><time>2026-04-01T10:17:11Z</time></trkpt><trkpt lat="43.052929207968624" lon="0.01750925369018141"><ele>557.0</ele><time>2026-04-01T10:17:12Z</time></trkpt><trkpt lat="43.052999933532874" lon="0.017728586339508988"><ele>561.6666666666666</ele><time>2026-04-01T10:17:13Z</time></trkpt><trkpt lat="43.053071910934904" lon="0.017948484971640727"><ele>566.3333333333334</ele><time>2026-04-01T10:17:14Z</time></trkpt><trkpt lat="43.05314437261138" lon="0.018168025807568815"><ele>571.0</ele><time>2026-04-01T10:17:15Z</time></trkpt><trkpt lat="43.05321108568681" lon="0.018364719935951648"><ele>576.6666666666667</ele><time>2026-04-01T10:17:16Z</time></trkpt><trkpt lat="43.05327167164974" lon="0.018550365102093184"><ele>582.3333333333334</ele><time>2026-04-01T10:17:17Z</time></trkpt><trkpt lat="43.053311961845836" lon="0.018752829876683093"><ele>588.0</ele><time>2026-04-01T10:17:18Z</time></trkpt><trkpt lat="43.05335068745777" lon="0.018957701920722936"><ele>578.3333333333334</ele><time>2026-04-01T10:17:19Z</time></trkpt><trkpt lat="43.05338192811611" lon="0.0191708717652087"><ele>568.6666666666667</ele><time>2026-04-01T10:17:20Z</time></trkpt><trkpt lat="43.053390018476115" lon="0.01939243912846394"><ele>559.0</ele><time>2026-04-01T10:17:21Z</time></trkpt><trkpt lat="43.053431596399626" lon="0.019607791607365747"><ele>559.0</ele><time>2026-04-01T10:17:22Z</time></trkpt><trkpt lat="43.0534648896621" lon="0.019832062736730403"><ele>559.0</ele><time>2026-04-01T10:17:23Z</time></trkpt><trkpt lat="43.05350844500791" lon="0.020054121354613826"><ele>559.0</ele><time>2026-04-01T10:17:24Z</time></trkpt><trkpt lat="43.0535585256147" lon="0.020282563910487942"><ele>560.3333333333334</ele><time>2026-04-01T10:17:25Z</time></trkpt><trkpt lat="43.05360814070738" lon="0.02051391457556875"><ele>561.6666666666666</ele><time>2026-04-01T10:17:26Z</time></trkpt><trkpt lat="43.053629914485406" lon="0.020749302152366363"><ele>563.0</ele><time>2026-04-01T10:17:27Z</time></trkpt><trkpt lat="43.053655089207" lon="0.02098976875570234"><ele>563.6666666666666</ele><time>2026-04-01T10:17:28Z</time></trkpt><trkpt lat="43.05369245286494" lon="0.02122445576622548"><ele>564.3333333333334</ele><time>2026-04-01T10:17:29Z</time></trkpt><trkpt lat="43.053706557419616" lon="0.021464831802480627"><ele>565.0</ele><time>2026-04-01T10:17:30Z</time></trkpt><trkpt lat="43.05372479340924" lon="0.021708506090481604"><ele>565.3333333333334</ele><time>2026-04-01T10:17:31Z</time></trkpt><trkpt lat="43.05375302820136" lon="0.02194700520807559"><ele>565.6666666666666</ele><time>2026-04-01T10:17:32Z</time></trkpt><trkpt lat="43.053780290941745" lon="0.02219384081297555"><ele>566.0</ele><time>2026-04-01T10:17:33Z</time></trkpt><trkpt lat="43.05380205971882" lon="0.02244755599098813"><ele>565.6666666666666</ele><time>2026-04-01T10:17:34Z</time></trkpt><trkpt lat="43.05382172951799" lon="0.02269954603802536"><ele>565.3333333333334</ele><time>2026-04-01T10:17:35Z</time></trkpt><trkpt lat="43.053850081248434" lon="0.022947555086280765"><ele>565.0</ele><time>2026-04-01T10:17:36Z</time></trkpt><trkpt lat="43.05388671969266" lon="0.023196759499080215"><ele>565.3333333333334</ele><time>2026-04-01T10:17:37Z</time></trkpt><trkpt lat="43.05391358951082" lon="0.02342882418715998"><ele>565.6666666666666</ele><time>2026-04-01T10:17:38Z</time></trkpt><trkpt lat="43.05392048107124" lon="0.023658569943259534"><ele>566.0</ele><time>2026-04-01T10:17:39Z</time></trkpt><trkpt lat="43.053916279375954" lon="0.02389428643841197"><ele>566.0</ele><time>2026-04-01T10:17:40Z</time></trkpt><trkpt lat="43.053915530488226" lon="0.024131051932632666"><ele>566.0</ele><time>2026-04-01T10:17:41Z</time></trkpt><trkpt lat="43.05389566803937" lon="0.02437258432150005"><ele>566.0</ele><time>2026-04-01T10:17:42Z</time></trkpt><trkpt lat="43.053889150558966" lon="0.024617510016847265"><ele>566.0</ele><time>2026-04-01T10:17:43Z</time></trkpt><trkpt lat="43.05389144369216" lon="0.024856782658849316"><ele>566.0</ele><time>2026-04-01T10:17:44Z</time></trkpt><trkpt lat="43.05387895039882" lon="0.025098883126465365"><ele>566.0</ele><time>2026-04-01T10:17:45Z</time></trkpt><trkpt lat="43.053877542206465" lon="0.02534177987996485"><ele>569.3333333333333</ele><time>2026-04-01T10:17:46Z</time></trkpt><trkpt lat="43.053891749470864" lon="0.025587908081222983"><ele>572.6666666666666</ele><time>2026-04-01T10:17:47Z</time></trkpt><trkpt lat="43.053913173629944" lon="0.025828221565863542"><ele>576.0</ele><time>2026-04-01T10:17:48Z</time></trkpt><trkpt lat="43.053918816193104" lon="0.02606943709816744"><ele>579.0</ele><time>2026-04-01T10:17:49Z</time></trkpt><trkpt lat="43.05395529930997" lon="0.026289430716350204"><ele>582.0</ele><time>2026-04-01T10:17:50Z</time></trkpt><trkpt lat="43.05397663637209" lon="0.026514553290138288"><ele>585.0</ele><time>2026-04-01T10:17:51Z</time></trkpt><trkpt lat="43.05400475146234" lon="0.02673846252690579"><ele>587.6666666666666</ele><time>2026-04-01T10:17:52Z</time></trkpt><trkpt lat="43.054036807790176" lon="0.02696773574200541"><ele>590.3333333333333</ele><time>2026-04-01T10:17:53Z</time></trkpt><trkpt lat="43.05407062627832" lon="0.027202747910969462"><ele>593.0</ele><time>2026-04-01T10:17:54Z</time></trkpt><trkpt lat="43.05410531246401" lon="0.02743325406386595"><ele>584.0</ele><time>2026-04-01T10:17:55Z</time></trkpt><trkpt lat="43.054142346284856" lon="0.027670224249337568"><ele>575.0</ele><time>2026-04-01T10:17:56Z</time></trkpt><trkpt lat="43.0541816601345" lon="0.02790048472564695"><ele>566.0</ele><time>2026-04-01T10:17:57Z</time></trkpt><trkpt lat="43.05423366596559" lon="0.02813435625727105"><ele>567.0</ele><time>2026-04-01T10:17:58Z</time></trkpt><trkpt lat="43.05428802868323" lon="0.028355312459393853"><ele>568.0</ele><time>2026-04-01T10:17:59Z</time></trkpt><trkpt lat="43.05434606334953" lon="0.028567264620617396"><ele>569.0</ele><time>2026-04-01T10:18:00Z</time></trkpt><trkpt lat="43.05438418084605" lon="0.028800751340701"><ele>569.0</ele><time>2026-04-01T10:18:01Z</time></trkpt><trkpt lat="43.05444449976143" lon="0.029022153233142826"><ele>569.0</ele><time>2026-04-01T10:18:02Z</time></trkpt><trkpt lat="43.05449155288454" lon="0.029255855866232736"><ele>569.0</ele><time>2026-04-01T10:18:03Z</time></trkpt><trkpt lat="43.054555328995484" lon="0.0294957648932074"><ele>571.3333333333333</ele><time>2026-04-01T10:18:04Z</time></trkpt><trkpt lat="43.05462119848924" lon="0.029733940826088483"><ele>573.6666666666666</ele><time>2026-04-01T10:18:05Z</time></trkpt><trkpt lat="43.05468326166281" lon="0.029972400323016093"><ele>576.0</ele><time>2026-04-01T10:18:06Z</time></trkpt><trkpt lat="43.0547503280366" lon="0.030205913589159587"><ele>574.0</ele><time>2026-04-01T10:18:07Z</time></trkpt><trkpt lat="43.05482230718881" lon="0.030426276579243145"><ele>572.0</ele><time>2026-04-01T10:18:08Z</time></trkpt><trkpt lat="43.05489776031682" lon="0.0306429228688385"><ele>570.0</ele><time>2026-04-01T10:18:09Z</time></trkpt><trkpt lat="43.05496380370741" lon="0.030838757059309416"><ele>570.0</ele><time>2026-04-01T10:18:10Z</time></trkpt><trkpt lat="43.055011010449604" lon="0.03102581568323909"><ele>570.0</ele><time>2026-04-01T10:18:11Z</time></trkpt><trkpt lat="43.055009256172525" lon="0.0312135691772505"><ele>570.0</ele><time>2026-04-01T10:18:12Z</time></trkpt><trkpt lat="43.05502964956083" lon="0.03139663409503459"><ele>570.0</ele><time>2026-04-01T10:18:13Z</time></trkpt><trkpt lat="43.055043711552756" lon="0.03156575249511477"><ele>574.25</ele><time>2026-04-01T10:18:14Z</time></trkpt><trkpt lat="43.055097298073605" lon="0.03171027046695735"><ele>578.5</ele><time>2026-04-01T10:18:15Z</time></trkpt><trkpt lat="43.05518928323721" lon="0.031815485162475746"><ele>582.75</ele><time>2026-04-01T10:18:16Z</time></trkpt><trkpt lat="43.05531426317666" lon="0.03190094804991456"><ele>587.0</ele><time>2026-04-01T10:18:17Z</time></trkpt><trkpt lat="43.05546094392123" lon="0.03196572318116591"><ele>587.0</ele><time>2026-04-01T10:18:18Z</time></trkpt><trkpt lat="43.05563177675882" lon="0.03201897895982012"><ele>587.0</ele><time>2026-04-01T10:18:19Z</time></trkpt><trkpt lat="43.055795183625065" lon="0.03205935419955037"><ele>587.0</ele><time>2026-04-01T10:18:20Z</time></trkpt><trkpt lat="43.05593422189729" lon="0.03211005573925411"><ele>583.0</ele><time>2026-04-01T10:18:21Z</time></trkpt><trkpt lat="43.0560622641692" lon="0.032184591814127424"><ele>579.0</ele><time>2026-04-01T10:18:22Z</time></trkpt><trkpt lat="43.05620617893086" lon="0.03228915095424098"><ele>575.0</ele><time>2026-04-01T10:18:23Z</time></trkpt><trkpt lat="43.05636756375303" lon="0.03242407916346711"><ele>574.6666666666666</ele><time>2026-04-01T10:18:24Z</time></trkpt><trkpt lat="43.05652304389076" lon="0.03258105128687745"><ele>574.3333333333334</ele><time>2026-04-01T10:18:25Z</time></trkpt><trkpt lat="43.05668696966741" lon="0.03275581815760932"><ele>574.0</ele><time>2026-04-01T10:18:26Z</time></trkpt><trkpt lat="43.05685486933274" lon="0.03293581945364998"><ele>574.0</ele><time>2026-04-01T10:18:27Z</time></trkpt><trkpt lat="43.05701886300653" lon="0.03311374136629572"><ele>574.0</ele><time>2026-04-01T10:18:28Z</time></trkpt><trkpt lat="43.057187944907646" lon="0.03329181316193573"><ele>574.0</ele><time>2026-04-01T10:18:29Z</time></trkpt><trkpt lat="43.05735712327932" lon="0.03346763073185709"><ele>575.0</ele><time>2026-04-01T10:18:30Z</time></trkpt><trkpt lat="43.05752799734755" lon="0.03365188053956312"><ele>576.0</ele><time>2026-04-01T10:18:31Z</time></trkpt><trkpt lat="43.05769935897848" lon="0.03384045444213642"><ele>577.0</ele><time>2026-04-01T10:18:32Z</time></trkpt><trkpt lat="43.05786916620893" lon="0.03402615436774681"><ele>574.6666666666667</ele><time>2026-04-01T10:18:33Z</time></trkpt><trkpt lat="43.05803701522596" lon="0.03421475136809561"><ele>572.3333333333334</ele><time>2026-04-01T10:18:34Z</time></trkpt><trkpt lat="43.05819879835677" lon="0.03439869252584972"><ele>570.0</ele><time>2026-04-01T10:18:35Z</time></trkpt><trkpt lat="43.05836113008096" lon="0.034577986652417216"><ele>574.6666666666666</ele><time>2026-04-01T10:18:36Z</time></trkpt><trkpt lat="43.05852880525774" lon="0.03472580139673815"><ele>579.3333333333333</ele><time>2026-04-01T10:18:37Z</time></trkpt><trkpt lat="43.05870956308733" lon="0.034842270272280186"><ele>584.0</ele><time>2026-04-01T10:18:38Z</time></trkpt><trkpt lat="43.05889549450226" lon="0.03495520657391419"><ele>582.3333333333333</ele><time>2026-04-01T10:18:39Z</time></trkpt><trkpt lat="43.05906844723612" lon="0.035096651355529376"><ele>580.6666666666666</ele><time>2026-04-01T10:18:40Z</time></trkpt><trkpt lat="43.05922209921757" lon="0.03525492289831019"><ele>579.0</ele><time>2026-04-01T10:18:41Z</time></trkpt><trkpt lat="43.059374822098896" lon="0.035411201902968814"><ele>583.6666666666666</ele><time>2026-04-01T10:18:42Z</time></trkpt><trkpt lat="43.0595341127693" lon="0.035541381819821756"><ele>588.3333333333333</ele><time>2026-04-01T10:18:43Z</time></trkpt><trkpt lat="43.05969704247722" lon="0.03564301186721402"><ele>593.0</ele><time>2026-04-01T10:18:44Z</time></trkpt><trkpt lat="43.059869111139115" lon="0.035740332924758374"><ele>590.6666666666666</ele><time>2026-04-01T10:18:45Z</time></trkpt><trkpt lat="43.0600412162808" lon="0.03584149234499276"><ele>588.3333333333334</ele><time>2026-04-01T10:18:46Z</time></trkpt><trkpt lat="43.060208871844004" lon="0.03594032841968816"><ele>586.0</ele><time>2026-04-01T10:18:47Z</time></trkpt><trkpt lat="43.060376632707474" lon="0.036032122429787615"><ele>586.0</ele><time>2026-04-01T10:18:48Z</time></trkpt><trkpt lat="43.060546735284056" lon="0.03610746418744854"><ele>586.0</ele><time>2026-04-01T10:18:49Z</time></trkpt><trkpt lat="43.060731366018686" lon="0.0361653498319176"><ele>586.0</ele><time>2026-04-01T10:18:50Z</time></trkpt><trkpt lat="43.0609231117729" lon="0.036216785809776914"><ele>591.3333333333334</ele><time>2026-04-01T10:18:51Z</time></trkpt><trkpt lat="43.06111877682154" lon="0.03626741824406514"><ele>596.6666666666666</ele><time>2026-04-01T10:18:52Z</time></trkpt><trkpt lat="43.06131340378092" lon="0.03631507800347822"><ele>602.0</ele><time>2026-04-01T10:18:53Z</time></trkpt><trkpt lat="43.06150162968421" lon="0.03635759783800263"><ele>605.0</ele><time>2026-04-01T10:18:54Z</time></trkpt><trkpt lat="43.06169050692737" lon="0.03640201124743232"><ele>608.0</ele><time>2026-04-01T10:18:55Z</time></trkpt><trkpt lat="43.06186460321195" lon="0.036451077282525765"><ele>611.0</ele><time>2026-04-01T10:18:56Z</time></trkpt><trkpt lat="43.062030001918" lon="0.03651031463910448"><ele>611.0</ele><time>2026-04-01T10:18:57Z</time></trkpt><trkpt lat="43.062182683893674" lon="0.03657560899665203"><ele>611.0</ele><time>2026-04-01T10:18:58Z</time></trkpt><trkpt lat="43.06231668688585" lon="0.0366264275137969"><ele>611.0</ele><time>2026-04-01T10:18:59Z</time></trkpt><trkpt lat="43.06240946015621" lon="0.036659491278234646"><ele>611.0</ele><time>2026-04-01T10:19:00Z</time></trkpt><trkpt lat="43.0625014051712" lon="0.03669444864764959"><ele>608.4</ele><time>2026-04-01T10:19:02Z</time></trkpt><trkpt lat="43.06246968740216" lon="0.03661845804200694"><ele>605.8</ele><time>2026-04-01T10:19:12.001Z</time></trkpt><trkpt lat="43.0623147301834" lon="0.036688902199496776"><ele>603.1999999999999</ele><time>2026-04-01T10:19:14.001Z</time></trkpt><trkpt lat="43.06236274526933" lon="0.036799508848063066"><ele>600.6</ele><time>2026-04-01T10:19:17.001Z</time></trkpt><trkpt lat="43.062424333628286" lon="0.0368660252230297"><ele>598.0</ele><time>2026-04-01T10:19:18.001Z</time></trkpt><trkpt lat="43.06251127505426" lon="0.036948393694730845"><ele>596.5</ele><time>2026-04-01T10:19:19.001Z</time></trkpt><trkpt lat="43.06259712114729" lon="0.03706194701623344"><ele>595.0</ele><time>2026-04-01T10:19:20.001Z</time></trkpt><trkpt lat="43.062676768148094" lon="0.03718126273825202"><ele>593.5</ele><time>2026-04-01T10:19:21.001Z</time></trkpt><trkpt lat="43.062754638333615" lon="0.03730622235988753"><ele>592.0</ele><time>2026-04-01T10:19:22.001Z</time></trkpt><trkpt lat="43.062821248276045" lon="0.037422953419000995"><ele>594.0</ele><time>2026-04-01T10:19:23.001Z</time></trkpt><trkpt lat="43.06287364872091" lon="0.03752807749861417"><ele>596.0</ele><time>2026-04-01T10:19:24.001Z</time></trkpt><trkpt lat="43.06290209227575" lon="0.037633524371360284"><ele>598.0</ele><time>2026-04-01T10:19:25.001Z</time></trkpt><trkpt lat="43.06291809890551" lon="0.03774682537461674"><ele>600.0</ele><time>2026-04-01T10:19:26.001Z</time></trkpt><trkpt lat="43.062933364949274" lon="0.03786885400157198"><ele>602.0</ele><time>2026-04-01T10:19:27.001Z</time></trkpt><trkpt lat="43.06294475707413" lon="0.037974511828111596"><ele>604.0</ele><time>2026-04-01T10:19:28.001Z</time></trkpt><trkpt lat="43.06297291684008" lon="0.03806481839696606"><ele>604.0</ele><time>2026-04-01T10:19:29.001Z</time></trkpt><trkpt lat="43.06301838659535" lon="0.03812886809522018"><ele>604.0</ele><time>2026-04-01T10:19:30.001Z</time></trkpt><trkpt lat="43.063140366280884" lon="0.03810931738398748"><ele>604.0</ele><time>2026-04-01T10:19:32.001Z</time></trkpt><trkpt lat="43.06322090642414" lon="0.03807610419727081"><ele>604.0</ele><time>2026-04-01T10:19:33.001Z</time></trkpt><trkpt lat="43.06332276177133" lon="0.03801164221338139"><ele>604.0</ele><time>2026-04-01T10:19:34.001Z</time></trkpt><trkpt lat="43.06344349513839" lon="0.03795537706541642"><ele>597.75</ele><time>2026-04-01T10:19:35.001Z</time></trkpt><trkpt lat="43.063586692018355" lon="0.0378990239030263"><ele>591.5</ele><time>2026-04-01T10:19:36.001Z</time></trkpt><trkpt lat="43.063726067430565" lon="0.037858591176135166"><ele>585.25</ele><time>2026-04-01T10:19:37.001Z</time></trkpt><trkpt lat="43.063870948278925" lon="0.037831491423503616"><ele>579.0</ele><time>2026-04-01T10:19:38.001Z</time></trkpt><trkpt lat="43.064033055506265" lon="0.03782459423117692"><ele>580.3333333333334</ele><time>2026-04-01T10:19:39.001Z</time></trkpt><trkpt lat="43.064198675888186" lon="0.03783118367037864"><ele>581.6666666666667</ele><time>2026-04-01T10:19:40.001Z</time></trkpt><trkpt lat="43.06436010305244" lon="0.03784732498067144"><ele>583.0</ele><time>2026-04-01T10:19:41.001Z</time></trkpt><trkpt lat="43.06450590983451" lon="0.03785515716000394"><ele>583.0</ele><time>2026-04-01T10:19:42.001Z</time></trkpt><trkpt lat="43.064647903495015" lon="0.03786296652518391"><ele>583.0</ele><time>2026-04-01T10:19:43.001Z</time></trkpt><trkpt lat="43.06478526621043" lon="0.03785379149530553"><ele>583.0</ele><time>2026-04-01T10:19:44.001Z</time></trkpt><trkpt lat="43.064910950638065" lon="0.03780984176247213"><ele>583.0</ele><time>2026-04-01T10:19:45.001Z</time></trkpt><trkpt lat="43.065022121455215" lon="0.03772498650391691"><ele>582.25</ele><time>2026-04-01T10:19:46.001Z</time></trkpt><trkpt lat="43.065118984731335" lon="0.03761174062498922"><ele>581.5</ele><time>2026-04-01T10:19:47.001Z</time></trkpt><trkpt lat="43.06522104449027" lon="0.037493777841560195"><ele>580.75</ele><time>2026-04-01T10:19:48.001Z</time></trkpt><trkpt lat="43.06535275241051" lon="0.03742570058712702"><ele>580.0</ele><time>2026-04-01T10:19:49.001Z</time></trkpt><trkpt lat="43.06548857010539" lon="0.03737659818431906"><ele>580.0</ele><time>2026-04-01T10:19:50.001Z</time></trkpt><trkpt lat="43.065612891046584" lon="0.037353383089667784"><ele>580.0</ele><time>2026-04-01T10:19:51.001Z</time></trkpt><trkpt lat="43.06571706746611" lon="0.03735290864602614"><ele>580.0</ele><time>2026-04-01T10:19:52.001Z</time></trkpt><trkpt lat="43.065800672839494" lon="0.03743143837450241"><ele>580.0</ele><time>2026-04-01T10:19:54.001Z</time></trkpt><trkpt lat="43.06582868295536" lon="0.03762336014719976"><ele>582.75</ele><time>2026-04-01T10:19:56.001Z</time></trkpt><trkpt lat="43.06582721265928" lon="0.03778605057471313"><ele>585.5</ele><time>2026-04-01T10:19:57.001Z</time></trkpt><trkpt lat="43.0658575798017" lon="0.03797281508580314"><ele>588.25</ele><time>2026-04-01T10:19:58.001Z</time></trkpt><trkpt lat="43.06585588643443" lon="0.038155140838962154"><ele>591.0</ele><time>2026-04-01T10:19:59.001Z</time></trkpt><trkpt lat="43.06580695147326" lon="0.038294781538353535"><ele>596.6</ele><time>2026-04-01T10:20:00.001Z</time></trkpt><trkpt lat="43.06575556552956" lon="0.0384074322875903"><ele>602.2</ele><time>2026-04-01T10:20:01.001Z</time></trkpt><trkpt lat="43.06571423109764" lon="0.038504538021244816"><ele>607.8</ele><time>2026-04-01T10:20:02.001Z</time></trkpt><trkpt lat="43.0656599687604" lon="0.038630002071553246"><ele>613.4</ele><time>2026-04-01T10:20:04.001Z</time></trkpt><trkpt lat="43.065651677140224" lon="0.03871774355792381"><ele>619.0</ele><time>2026-04-01T10:20:06.001Z</time></trkpt><trkpt lat="43.0656825483289" lon="0.03858431113053704"><ele>619.0</ele><time>2026-04-01T10:20:09.001Z</time></trkpt><trkpt lat="43.06573869177752" lon="0.03851742692303569"><ele>619.0</ele><time>2026-04-01T10:20:10.001Z</time></trkpt><trkpt lat="43.06573066502791" lon="0.03838749699785733"><ele>619.0</ele><time>2026-04-01T10:20:11.001Z</time></trkpt><trkpt lat="43.06574729425217" lon="0.03825404361007314"><ele>619.0</ele><time>2026-04-01T10:20:12.001Z</time></trkpt><trkpt lat="43.06578110644884" lon="0.03812772226281992"><ele>619.0</ele><time>2026-04-01T10:20:13.001Z</time></trkpt><trkpt lat="43.06579701225917" lon="0.037996390309614554"><ele>613.4</ele><time>2026-04-01T10:20:14.001Z</time></trkpt><trkpt lat="43.06577881897449" lon="0.03785733774156089"><ele>607.8</ele><time>2026-04-01T10:20:15.001Z</time></trkpt><trkpt lat="43.06574269562169" lon="0.03772186827652462"><ele>602.2</ele><time>2026-04-01T10:20:16.001Z</time></trkpt><trkpt lat="43.06569431410752" lon="0.037620442674528826"><ele>596.6</ele><time>2026-04-01T10:20:17.001Z</time></trkpt><trkpt lat="43.06564275816926" lon="0.03756192388990527"><ele>591.0</ele><time>2026-04-01T10:20:18.001Z</time></trkpt><trkpt lat="43.06555317608601" lon="0.03753816612178896"><ele>591.0</ele><time>2026-04-01T10:20:20.001Z</time></trkpt><trkpt lat="43.06547142912946" lon="0.03758146856748527"><ele>591.0</ele><time>2026-04-01T10:20:22.001Z</time></trkpt><trkpt lat="43.065406920600196" lon="0.0376227376102134"><ele>591.0</ele><time>2026-04-01T10:20:27.001Z</time></trkpt><trkpt lat="43.06532928631685" lon="0.03774741249267677"><ele>591.0</ele><time>2026-04-01T10:20:30.001Z</time></trkpt><trkpt lat="43.06522985109918" lon="0.037873861643934865"><ele>591.0</ele><time>2026-04-01T10:20:32.001Z</time></trkpt><trkpt lat="43.0651597619236" lon="0.03798945200965893"><ele>591.0</ele><time>2026-04-01T10:20:33.001Z</time></trkpt><trkpt lat="43.0650930465239" lon="0.03808903474801446"><ele>591.0</ele><time>2026-04-01T10:20:34.001Z</time></trkpt><trkpt lat="43.065021774420856" lon="0.03818579989536025"><ele>591.0</ele><time>2026-04-01T10:20:35.001Z</time></trkpt><trkpt lat="43.06494403908474" lon="0.03825226503756513"><ele>591.0</ele><time>2026-04-01T10:20:36.001Z</time></trkpt><trkpt lat="43.06485290002478" lon="0.038289223945434527"><ele>591.0</ele><time>2026-04-01T10:20:37.001Z</time></trkpt><trkpt lat="43.06475523018002" lon="0.038300692464882366"><ele>595.0</ele><time>2026-04-01T10:20:38.001Z</time></trkpt><trkpt lat="43.06465255720161" lon="0.038313068437574246"><ele>599.0</ele><time>2026-04-01T10:20:39.001Z</time></trkpt><trkpt lat="43.064561434217445" lon="0.03831656319613555"><ele>603.0</ele><time>2026-04-01T10:20:40.001Z</time></trkpt><trkpt lat="43.06449109404465" lon="0.03831909423688914"><ele>607.0</ele><time>2026-04-01T10:20:41.001Z</time></trkpt><trkpt lat="43.06440018561914" lon="0.038324031019991975"><ele>611.0</ele><time>2026-04-01T10:20:43.001Z</time></trkpt><trkpt lat="43.06431109338224" lon="0.03833764787688801"><ele>615.0</ele><time>2026-04-01T10:20:46.001Z</time></trkpt><trkpt lat="43.06424446782897" lon="0.038354040008410126"><ele>615.0</ele><time>2026-04-01T10:20:47.001Z</time></trkpt><trkpt lat="43.064158622574446" lon="0.03837885100933154"><ele>615.0</ele><time>2026-04-01T10:20:48.001Z</time></trkpt><trkpt lat="43.06405589130864" lon="0.038417927897768135"><ele>615.0</ele><time>2026-04-01T10:20:49.001Z</time></trkpt><trkpt lat="43.06396076893591" lon="0.038452955700560884"><ele>615.0</ele><time>2026-04-01T10:20:50.001Z</time></trkpt><trkpt lat="43.06386133017008" lon="0.03848334023819493"><ele>615.0</ele><time>2026-04-01T10:20:51.001Z</time></trkpt><trkpt lat="43.063748825516136" lon="0.0385084640798924"><ele>613.2</ele><time>2026-04-01T10:20:52.001Z</time></trkpt><trkpt lat="43.06363177364302" lon="0.038537360231823595"><ele>611.4</ele><time>2026-04-01T10:20:53.001Z</time></trkpt><trkpt lat="43.06352818642776" lon="0.03858310317102605"><ele>609.6</ele><time>2026-04-01T10:20:54.001Z</time></trkpt><trkpt lat="43.06344145558895" lon="0.03865615512858525"><ele>607.8</ele><time>2026-04-01T10:20:55.001Z</time></trkpt><trkpt lat="43.06338199593705" lon="0.03877317099660407"><ele>606.0</ele><time>2026-04-01T10:20:56.001Z</time></trkpt><trkpt lat="43.063312075475416" lon="0.038893675465283245"><ele>610.25</ele><time>2026-04-01T10:20:57.001Z</time></trkpt><trkpt lat="43.06322168457714" lon="0.039015666133778854"><ele>614.5</ele><time>2026-04-01T10:20:58.001Z</time></trkpt><trkpt lat="43.0631445571587" lon="0.0391716504965916"><ele>618.75</ele><time>2026-04-01T10:20:59.001Z</time></trkpt><trkpt lat="43.06307515413775" lon="0.039342683428403226"><ele>623.0</ele><time>2026-04-01T10:21:00.001Z</time></trkpt><trkpt lat="43.06301345934536" lon="0.03952566138573821"><ele>623.0</ele><time>2026-04-01T10:21:01.001Z</time></trkpt><trkpt lat="43.06295627375247" lon="0.03970747865531093"><ele>623.0</ele><time>2026-04-01T10:21:02.001Z</time></trkpt><trkpt lat="43.06290044496203" lon="0.03988392224908933"><ele>623.0</ele><time>2026-04-01T10:21:03.001Z</time></trkpt><trkpt lat="43.062837943480964" lon="0.04005735300732204"><ele>623.0</ele><time>2026-04-01T10:21:04.001Z</time></trkpt><trkpt lat="43.062774274666374" lon="0.040236573798834704"><ele>625.6666666666666</ele><time>2026-04-01T10:21:05.001Z</time></trkpt><trkpt lat="43.062690913104234" lon="0.04041956652576792"><ele>628.3333333333334</ele><time>2026-04-01T10:21:06Z</time></trkpt><trkpt lat="43.062609177628765" lon="0.04058795775922215"><ele>631.0</ele><time>2026-04-01T10:21:07Z</time></trkpt><trkpt lat="43.062529711292704" lon="0.04076839274873673"><ele>635.0</ele><time>2026-04-01T10:21:08Z</time></trkpt><trkpt lat="43.06246214055005" lon="0.04095093780224163"><ele>639.0</ele><time>2026-04-01T10:21:09Z</time></trkpt><trkpt lat="43.06239973304826" lon="0.04114825277243939"><ele>643.0</ele><time>2026-04-01T10:21:10Z</time></trkpt><trkpt lat="43.06231585876756" lon="0.04134484703180118"><ele>645.6666666666667</ele><time>2026-04-01T10:21:11.001Z</time></trkpt><trkpt lat="43.06222833426049" lon="0.04152103083105866"><ele>648.3333333333334</ele><time>2026-04-01T10:21:12.001Z</time></trkpt><trkpt lat="43.06212804092992" lon="0.04167862503488447"><ele>651.0</ele><time>2026-04-01T10:21:13.001Z</time></trkpt><trkpt lat="43.06202132633717" lon="0.041825364016163734"><ele>651.0</ele><time>2026-04-01T10:21:14.001Z</time></trkpt><trkpt lat="43.06191262316327" lon="0.041960233663618035"><ele>651.0</ele><time>2026-04-01T10:21:15.001Z</time></trkpt><trkpt lat="43.06179088638629" lon="0.042076212568907215"><ele>651.0</ele><time>2026-04-01T10:21:16.001Z</time></trkpt><trkpt lat="43.06167917058304" lon="0.04217628122772215"><ele>651.0</ele><time>2026-04-01T10:21:17.001Z</time></trkpt><trkpt lat="43.0615790236201" lon="0.04229481111444506"><ele>654.0</ele><time>2026-04-01T10:21:18.001Z</time></trkpt><trkpt lat="43.061492003780415" lon="0.0423833117782907"><ele>657.0</ele><time>2026-04-01T10:21:19.001Z</time></trkpt><trkpt lat="43.06143660675196" lon="0.04245720240395723"><ele>660.0</ele><time>2026-04-01T10:21:20.001Z</time></trkpt><trkpt lat="43.061396172105106" lon="0.042583746761993335"><ele>663.0</ele><time>2026-04-01T10:21:22.001Z</time></trkpt><trkpt lat="43.06144922706151" lon="0.04264727193832066"><ele>666.0</ele><time>2026-04-01T10:21:23.001Z</time></trkpt><trkpt lat="43.06152676627758" lon="0.042640265494783496"><ele>669.0</ele><time>2026-04-01T10:21:24.001Z</time></trkpt><trkpt lat="43.06160054615485" lon="0.04260899803197176"><ele>669.0</ele><time>2026-04-01T10:21:25.001Z</time></trkpt><trkpt lat="43.061671209951335" lon="0.04253536040240535"><ele>669.0</ele><time>2026-04-01T10:21:26.001Z</time></trkpt><trkpt lat="43.061771823507435" lon="0.042456704561952156"><ele>669.0</ele><time>2026-04-01T10:21:27.001Z</time></trkpt><trkpt lat="43.06188834371616" lon="0.0423533128161403"><ele>669.0</ele><time>2026-04-01T10:21:28.001Z</time></trkpt><trkpt lat="43.062002390729475" lon="0.04223371106743161"><ele>668.75</ele><time>2026-04-01T10:21:29.001Z</time></trkpt><trkpt lat="43.06212084074758" lon="0.0421524269387173"><ele>668.5</ele><time>2026-04-01T10:21:30.001Z</time></trkpt><trkpt lat="43.062233580699505" lon="0.04205059716243583"><ele>668.25</ele><time>2026-04-01T10:21:31.001Z</time></trkpt><trkpt lat="43.06234175947931" lon="0.0419383465611373"><ele>668.0</ele><time>2026-04-01T10:21:32.001Z</time></trkpt><trkpt lat="43.06245190891934" lon="0.04182196199558099"><ele>668.0</ele><time>2026-04-01T10:21:33.001Z</time></trkpt><trkpt lat="43.06255013795235" lon="0.04170350877884066"><ele>668.0</ele><time>2026-04-01T10:21:34.001Z</time></trkpt><trkpt lat="43.06262617638694" lon="0.04159566203192105"><ele>668.0</ele><time>2026-04-01T10:21:35.001Z</time></trkpt><trkpt lat="43.06270453537292" lon="0.04151515578870005"><ele>668.0</ele><time>2026-04-01T10:21:36Z</time></trkpt><trkpt lat="43.06276471962024" lon="0.04143784196584919"><ele>668.0</ele><time>2026-04-01T10:21:37Z</time></trkpt><trkpt lat="43.062817800693544" lon="0.04136965262896692"><ele>663.0</ele><time>2026-04-01T10:21:38Z</time></trkpt><trkpt lat="43.06286637932621" lon="0.04130724746980993"><ele>658.0</ele><time>2026-04-01T10:21:39Z</time></trkpt><trkpt lat="43.06296434419859" lon="0.04117752980632601"><ele>653.0</ele><time>2026-04-01T10:21:41Z</time></trkpt><trkpt lat="43.06302173717373" lon="0.04109999506116137"><ele>648.0</ele><time>2026-04-01T10:21:42Z</time></trkpt><trkpt lat="43.06306773644318" lon="0.04103748067683401"><ele>643.0</ele><time>2026-04-01T10:21:43Z</time></trkpt><trkpt lat="43.06314520446663" lon="0.04093064762632874"><ele>643.0</ele><time>2026-04-01T10:26:17Z</time></trkpt><trkpt lat="43.06318430818884" lon="0.040851175053926374"><ele>643.0</ele><time>2026-04-01T10:26:18Z</time></trkpt><trkpt lat="43.06324167205221" lon="0.04078028528324891"><ele>643.0</ele><time>2026-04-01T10:26:19Z</time></trkpt><trkpt lat="43.06330659129125" lon="0.04069314375840848"><ele>643.0</ele><time>2026-04-01T10:26:20Z</time></trkpt><trkpt lat="43.06337437216136" lon="0.04059165496070106"><ele>643.0</ele><time>2026-04-01T10:26:21Z</time></trkpt><trkpt lat="43.063459278395186" lon="0.04047425423292311"><ele>647.0</ele><time>2026-04-01T10:26:22Z</time></trkpt><trkpt lat="43.063544836170195" lon="0.040370873411007355"><ele>651.0</ele><time>2026-04-01T10:26:23Z</time></trkpt><trkpt lat="43.0636364631673" lon="0.040275116823731735"><ele>655.0</ele><time>2026-04-01T10:26:24Z</time></trkpt><trkpt lat="43.06374917189406" lon="0.04018566362961929"><ele>659.0</ele><time>2026-04-01T10:26:25Z</time></trkpt><trkpt lat="43.0638740761208" lon="0.04010721027058816"><ele>659.0</ele><time>2026-04-01T10:26:26Z</time></trkpt><trkpt lat="43.06399994137714" lon="0.04003627752329119"><ele>659.0</ele><time>2026-04-01T10:26:27Z</time></trkpt><trkpt lat="43.06409497469202" lon="0.03999025521910345"><ele>659.0</ele><time>2026-04-01T10:26:28Z</time></trkpt><trkpt lat="43.06416190203179" lon="0.039969402015836646"><ele>659.0</ele><time>2026-04-01T10:26:29Z</time></trkpt><trkpt lat="43.064227185100656" lon="0.04003830783526608"><ele>659.0</ele><time>2026-04-01T10:26:31Z</time></trkpt><trkpt lat="43.064127940631344" lon="0.04016933977644264"><ele>659.0</ele><time>2026-04-01T10:26:35Z</time></trkpt><trkpt lat="43.06402626677188" lon="0.040220779191874216"><ele>659.0</ele><time>2026-04-01T10:26:36Z</time></trkpt><trkpt lat="43.063962028134014" lon="0.040292808034466714"><ele>659.0</ele><time>2026-04-01T10:26:37Z</time></trkpt><trkpt lat="43.063890010420664" lon="0.04035975180443715"><ele>659.0</ele><time>2026-04-01T10:26:38Z</time></trkpt><trkpt lat="43.06380879671207" lon="0.04043105039244209"><ele>659.0</ele><time>2026-04-01T10:26:39Z</time></trkpt><trkpt lat="43.063759323472006" lon="0.04055349877770645"><ele>659.0</ele><time>2026-04-01T10:26:40Z</time></trkpt><trkpt lat="43.063698721600886" lon="0.04067487868006285"><ele>659.0</ele><time>2026-04-01T10:26:41Z</time></trkpt><trkpt lat="43.06364811942125" lon="0.040812295623994424"><ele>659.0</ele><time>2026-04-01T10:26:42Z</time></trkpt><trkpt lat="43.063584274585885" lon="0.04094638922174306"><ele>659.0</ele><time>2026-04-01T10:26:43Z</time></trkpt><trkpt lat="43.06353322220749" lon="0.041087971579767055"><ele>665.75</ele><time>2026-04-01T10:26:44Z</time></trkpt><trkpt lat="43.063499449812994" lon="0.0412415001543797"><ele>672.5</ele><time>2026-04-01T10:26:45Z</time></trkpt><trkpt lat="43.06344385984606" lon="0.04138352962724695"><ele>679.25</ele><time>2026-04-01T10:26:46Z</time></trkpt><trkpt lat="43.063395627256824" lon="0.04152920656998315"><ele>686.0</ele><time>2026-04-01T10:26:47Z</time></trkpt><trkpt lat="43.063346198219925" lon="0.041674776830237466"><ele>681.5</ele><time>2026-04-01T10:26:48Z</time></trkpt><trkpt lat="43.063292986859096" lon="0.04181925388382907"><ele>677.0</ele><time>2026-04-01T10:26:49Z</time></trkpt><trkpt lat="43.06323348634818" lon="0.04196131826641563"><ele>672.5</ele><time>2026-04-01T10:26:50Z</time></trkpt><trkpt lat="43.063160812009784" lon="0.042108544992986184"><ele>668.0</ele><time>2026-04-01T10:26:51Z</time></trkpt><trkpt lat="43.06306363025894" lon="0.042242559728135246"><ele>668.0</ele><time>2026-04-01T10:26:52Z</time></trkpt><trkpt lat="43.06298627512174" lon="0.04240232721967823"><ele>668.0</ele><time>2026-04-01T10:26:53Z</time></trkpt><trkpt lat="43.06288800222328" lon="0.04254158175387202"><ele>668.0</ele><time>2026-04-01T10:26:54Z</time></trkpt><trkpt lat="43.062792967143714" lon="0.042687276167984504"><ele>668.0</ele><time>2026-04-01T10:26:55Z</time></trkpt><trkpt lat="43.06269537036974" lon="0.04282860232609191"><ele>668.3333333333333</ele><time>2026-04-01T10:26:56Z</time></trkpt><trkpt lat="43.062588805019" lon="0.04298301069156415"><ele>668.6666666666666</ele><time>2026-04-01T10:26:57Z</time></trkpt><trkpt lat="43.062469400291434" lon="0.04313239161127442"><ele>669.0</ele><time>2026-04-01T10:26:58Z</time></trkpt><trkpt lat="43.06234015936212" lon="0.04325289664250408"><ele>677.25</ele><time>2026-04-01T10:26:59Z</time></trkpt><trkpt lat="43.062234911186145" lon="0.043390050287620226"><ele>685.5</ele><time>2026-04-01T10:27:00Z</time></trkpt><trkpt lat="43.06211410106719" lon="0.0435026456743234"><ele>693.75</ele><time>2026-04-01T10:27:01Z</time></trkpt><trkpt lat="43.062000035556785" lon="0.04362062689347641"><ele>702.0</ele><time>2026-04-01T10:27:02Z</time></trkpt><trkpt lat="43.06188563003768" lon="0.04375164082833262"><ele>702.0</ele><time>2026-04-01T10:27:03Z</time></trkpt><trkpt lat="43.06177560871956" lon="0.04387971917967481"><ele>702.0</ele><time>2026-04-01T10:27:04Z</time></trkpt><trkpt lat="43.061663638879345" lon="0.0440077736236144"><ele>702.0</ele><time>2026-04-01T10:27:05Z</time></trkpt><trkpt lat="43.06155019061108" lon="0.044142610046213566"><ele>702.0</ele><time>2026-04-01T10:27:06Z</time></trkpt><trkpt lat="43.06144115663569" lon="0.04428565744278122"><ele>700.0</ele><time>2026-04-01T10:27:07Z</time></trkpt><trkpt lat="43.06133066319088" lon="0.044432085184078936"><ele>698.0</ele><time>2026-04-01T10:27:08Z</time></trkpt><trkpt lat="43.06122511688859" lon="0.04457881565459379"><ele>696.0</ele><time>2026-04-01T10:27:09Z</time></trkpt><trkpt lat="43.061124216701" lon="0.044727146467684054"><ele>696.0</ele><time>2026-04-01T10:27:10Z</time></trkpt><trkpt lat="43.06101612718082" lon="0.04486279968311483"><ele>696.0</ele><time>2026-04-01T10:27:11Z</time></trkpt><trkpt lat="43.06093863980435" lon="0.0450238695991053"><ele>696.0</ele><time>2026-04-01T10:27:12Z</time></trkpt><trkpt lat="43.06084116957716" lon="0.045181724358563956"><ele>696.0</ele><time>2026-04-01T10:27:13Z</time></trkpt><trkpt lat="43.060718026893376" lon="0.04533427011525969"><ele>696.6666666666666</ele><time>2026-04-01T10:27:14Z</time></trkpt><trkpt lat="43.06060849712604" lon="0.04553860976474038"><ele>697.3333333333333</ele><time>2026-04-01T10:27:15Z</time></trkpt><trkpt lat="43.060460590943926" lon="0.045690870107111675"><ele>698.0</ele><time>2026-04-01T10:27:16Z</time></trkpt><trkpt lat="43.06032043015456" lon="0.045843532864847505"><ele>699.3333333333333</ele><time>2026-04-01T10:27:17Z</time></trkpt><trkpt lat="43.06017335506498" lon="0.04600030616587395"><ele>700.6666666666666</ele><time>2026-04-01T10:27:18Z</time></trkpt><trkpt lat="43.06005570411325" lon="0.046152394814549275"><ele>702.0</ele><time>2026-04-01T10:27:19Z</time></trkpt><trkpt lat="43.059937793872486" lon="0.046272239859330336"><ele>702.0</ele><time>2026-04-01T10:27:20Z</time></trkpt><trkpt lat="43.05983597598919" lon="0.04638506280870306"><ele>702.0</ele><time>2026-04-01T10:27:21Z</time></trkpt><trkpt lat="43.05974043631296" lon="0.046491059625162284"><ele>702.0</ele><time>2026-04-01T10:27:22Z</time></trkpt><trkpt lat="43.05965946864866" lon="0.04659426263587049"><ele>702.0</ele><time>2026-04-01T10:27:23Z</time></trkpt><trkpt lat="43.059594540349416" lon="0.04669821826950312"><ele>705.8333333333334</ele><time>2026-04-01T10:27:24Z</time></trkpt><trkpt lat="43.05954934858664" lon="0.046793903325079836"><ele>709.6666666666666</ele><time>2026-04-01T10:27:25Z</time></trkpt><trkpt lat="43.05952014885824" lon="0.046890356317252704"><ele>713.5</ele><time>2026-04-01T10:27:26Z</time></trkpt><trkpt lat="43.05951420492672" lon="0.046984210670617664"><ele>717.3333333333333</ele><time>2026-04-01T10:27:43Z</time></trkpt><trkpt lat="43.05949781682853" lon="0.04708589233673568"><ele>721.1666666666666</ele><time>2026-04-01T10:27:44Z</time></trkpt><trkpt lat="43.059462768542815" lon="0.047203180382574136"><ele>725.0</ele><time>2026-04-01T10:27:45Z</time></trkpt><trkpt lat="43.05940997487723" lon="0.04729568176524681"><ele>725.0</ele><time>2026-04-01T10:27:46Z</time></trkpt><trkpt lat="43.05932904387636" lon="0.04737370629313527"><ele>725.0</ele><time>2026-04-01T10:27:47Z</time></trkpt><trkpt lat="43.059263102267536" lon="0.04748212874843589"><ele>725.0</ele><time>2026-04-01T10:27:48Z</time></trkpt><trkpt lat="43.059194771713955" lon="0.04757394752326381"><ele>725.0</ele><time>2026-04-01T10:27:49Z</time></trkpt><trkpt lat="43.05915334861336" lon="0.047653789421396045"><ele>725.0</ele><time>2026-04-01T10:27:50Z</time></trkpt><trkpt lat="43.05912542658361" lon="0.04775356367932591"><ele>725.0</ele><time>2026-04-01T10:27:51Z</time></trkpt><trkpt lat="43.05910656138984" lon="0.04787900720834077"><ele>726.4</ele><time>2026-04-01T10:27:52Z</time></trkpt><trkpt lat="43.05909538375864" lon="0.04800895829805778"><ele>727.8</ele><time>2026-04-01T10:27:53Z</time></trkpt><trkpt lat="43.059083743615965" lon="0.048145562128135096"><ele>729.2</ele><time>2026-04-01T10:27:54Z</time></trkpt><trkpt lat="43.05907008218112" lon="0.04826119276248099"><ele>730.6</ele><time>2026-04-01T10:27:55Z</time></trkpt><trkpt lat="43.05901389110532" lon="0.048401471878163065"><ele>732.0</ele><time>2026-04-01T10:27:57Z</time></trkpt><trkpt lat="43.05895499418951" lon="0.04843675805039682"><ele>732.0</ele><time>2026-04-01T10:27:58Z</time></trkpt><trkpt lat="43.05888709423123" lon="0.048432674670765674"><ele>732.0</ele><time>2026-04-01T10:27:59Z</time></trkpt><trkpt lat="43.05881327427563" lon="0.048396682955328896"><ele>732.0</ele><time>2026-04-01T10:28:00Z</time></trkpt><trkpt lat="43.05876014744583" lon="0.04826812331204801"><ele>732.0</ele><time>2026-04-01T10:28:01Z</time></trkpt><trkpt lat="43.05867094709544" lon="0.04822054739230502"><ele>732.0</ele><time>2026-04-01T10:28:02Z</time></trkpt><trkpt lat="43.058573550077604" lon="0.0482224312445981"><ele>732.0</ele><time>2026-04-01T10:28:03Z</time></trkpt><trkpt lat="43.05850372447466" lon="0.04827326892946755"><ele>730.6</ele><time>2026-04-01T10:28:04Z</time></trkpt><trkpt lat="43.05845390174261" lon="0.04833628284503266"><ele>729.2</ele><time>2026-04-01T10:28:05Z</time></trkpt><trkpt lat="43.05840934331384" lon="0.04843519676257678"><ele>727.8</ele><time>2026-04-01T10:28:06Z</time></trkpt><trkpt lat="43.05834294192933" lon="0.048552296012335946"><ele>726.4</ele><time>2026-04-01T10:28:07Z</time></trkpt><trkpt lat="43.05827842941091" lon="0.0486909425278244"><ele>725.0</ele><time>2026-04-01T10:28:08Z</time></trkpt><trkpt lat="43.05820354707625" lon="0.04885090692427368"><ele>725.0</ele><time>2026-04-01T10:28:09Z</time></trkpt><trkpt lat="43.05811880996096" lon="0.049032806684916504"><ele>725.0</ele><time>2026-04-01T10:28:10Z</time></trkpt><trkpt lat="43.05803189868067" lon="0.04925055724815017"><ele>725.0</ele><time>2026-04-01T10:28:11Z</time></trkpt><trkpt lat="43.057934599168135" lon="0.04946237752456549"><ele>732.6666666666666</ele><time>2026-04-01T10:28:12Z</time></trkpt><trkpt lat="43.05783397844843" lon="0.04967249884149504"><ele>740.3333333333334</ele><time>2026-04-01T10:28:13Z</time></trkpt><trkpt lat="43.05774413458347" lon="0.04985870329745997"><ele>748.0</ele><time>2026-04-01T10:28:14Z</time></trkpt><trkpt lat="43.057651392756895" lon="0.05003969391075952"><ele>749.0</ele><time>2026-04-01T10:28:15Z</time></trkpt><trkpt lat="43.05755116175635" lon="0.05021117319531485"><ele>750.0</ele><time>2026-04-01T10:28:16Z</time></trkpt><trkpt lat="43.057450384049766" lon="0.05036984344524268"><ele>751.0</ele><time>2026-04-01T10:28:17Z</time></trkpt><trkpt lat="43.05734840222942" lon="0.05050733461905135"><ele>751.0</ele><time>2026-04-01T10:28:18Z</time></trkpt><trkpt lat="43.05722810850775" lon="0.05065127285899287"><ele>751.0</ele><time>2026-04-01T10:28:19Z</time></trkpt><trkpt lat="43.057118658148845" lon="0.05078548012994391"><ele>751.0</ele><time>2026-04-01T10:28:20Z</time></trkpt><trkpt lat="43.05701899842375" lon="0.05095125246944285"><ele>756.3333333333334</ele><time>2026-04-01T10:28:21Z</time></trkpt><trkpt lat="43.05693691950922" lon="0.051124018710447076"><ele>761.6666666666666</ele><time>2026-04-01T10:28:22Z</time></trkpt><trkpt lat="43.05685759380263" lon="0.05130618340360904"><ele>767.0</ele><time>2026-04-01T10:28:23Z</time></trkpt><trkpt lat="43.056776939090604" lon="0.051497215630523126"><ele>767.25</ele><time>2026-04-01T10:28:24Z</time></trkpt><trkpt lat="43.056711007588085" lon="0.05166865065036958"><ele>767.5</ele><time>2026-04-01T10:28:25Z</time></trkpt><trkpt lat="43.05665145478213" lon="0.05184351911877925"><ele>767.75</ele><time>2026-04-01T10:28:26Z</time></trkpt><trkpt lat="43.056604437917365" lon="0.05200095772264486"><ele>768.0</ele><time>2026-04-01T10:28:27Z</time></trkpt><trkpt lat="43.05657827750435" lon="0.05215221335947858"><ele>768.0</ele><time>2026-04-01T10:28:28Z</time></trkpt><trkpt lat="43.056578466456806" lon="0.05228448982172427"><ele>768.0</ele><time>2026-04-01T10:28:29Z</time></trkpt><trkpt lat="43.056603651441954" lon="0.052417708118383644"><ele>768.0</ele><time>2026-04-01T10:28:30Z</time></trkpt><trkpt lat="43.05665304393844" lon="0.0525508253034132"><ele>768.0</ele><time>2026-04-01T10:28:31Z</time></trkpt><trkpt lat="43.05672601529514" lon="0.05268454839348794"><ele>768.0</ele><time>2026-04-01T10:28:32Z</time></trkpt><trkpt lat="43.056794978334786" lon="0.052847655943504906"><ele>774.25</ele><time>2026-04-01T10:28:33Z</time></trkpt><trkpt lat="43.05689026564583" lon="0.05300574709366927"><ele>780.5</ele><time>2026-04-01T10:28:34Z</time></trkpt><trkpt lat="43.056987582017605" lon="0.05316199762554616"><ele>786.75</ele><time>2026-04-01T10:28:35Z</time></trkpt><trkpt lat="43.05707884048727" lon="0.05329936333708973"><ele>793.0</ele><time>2026-04-01T10:28:36Z</time></trkpt><trkpt lat="43.057143025578746" lon="0.053458908207629885"><ele>794.5999999999999</ele><time>2026-04-01T10:28:37Z</time></trkpt><trkpt lat="43.05717119462215" lon="0.05359432024107689"><ele>796.1999999999999</ele><time>2026-04-01T10:28:38Z</time></trkpt><trkpt lat="43.057178921465756" lon="0.053701245486523996"><ele>797.8</ele><time>2026-04-01T10:28:39Z</time></trkpt><trkpt lat="43.05715835764205" lon="0.053804388769711775"><ele>799.4</ele><time>2026-04-01T10:28:40Z</time></trkpt><trkpt lat="43.057107460990245" lon="0.053889874233484666"><ele>801.0</ele><time>2026-04-01T10:28:41Z</time></trkpt><trkpt lat="43.056963878714036" lon="0.053864891544590385"><ele>801.0</ele><time>2026-04-01T10:28:42Z</time></trkpt><trkpt lat="43.056869881274615" lon="0.05391838571222173"><ele>801.0</ele><time>2026-04-01T10:28:43Z</time></trkpt><trkpt lat="43.05675642142671" lon="0.05398736838268277"><ele>801.0</ele><time>2026-04-01T10:28:44Z</time></trkpt><trkpt lat="43.056627966079276" lon="0.05406849007602632"><ele>801.0</ele><time>2026-04-01T10:28:45Z</time></trkpt><trkpt lat="43.056530117266895" lon="0.05414807777572241"><ele>800.1999999999999</ele><time>2026-04-01T10:28:46Z</time></trkpt><trkpt lat="43.05644561316277" lon="0.054208973880019815"><ele>799.4</ele><time>2026-04-01T10:28:47Z</time></trkpt><trkpt lat="43.05638192121821" lon="0.054302365542725634"><ele>798.6</ele><time>2026-04-01T10:28:48Z</time></trkpt><trkpt lat="43.05632408564047" lon="0.054433996162489395"><ele>797.8</ele><time>2026-04-01T10:28:49Z</time></trkpt><trkpt lat="43.05625790341743" lon="0.054567364981839624"><ele>797.0</ele><time>2026-04-01T10:28:50Z</time></trkpt><trkpt lat="43.05617630702121" lon="0.05470182008725562"><ele>797.0</ele><time>2026-04-01T10:28:51Z</time></trkpt><trkpt lat="43.05609126874934" lon="0.05485671257266798"><ele>797.0</ele><time>2026-04-01T10:28:52Z</time></trkpt><trkpt lat="43.05601016867792" lon="0.05501372688676244"><ele>797.0</ele><time>2026-04-01T10:28:53Z</time></trkpt><trkpt lat="43.05592731167299" lon="0.05518468012748884"><ele>797.0</ele><time>2026-04-01T10:28:54Z</time></trkpt><trkpt lat="43.05582070646824" lon="0.05535146914071881"><ele>796.0</ele><time>2026-04-01T10:28:55Z</time></trkpt><trkpt lat="43.05573041974016" lon="0.055546127493148"><ele>795.0</ele><time>2026-04-01T10:28:56Z</time></trkpt><trkpt lat="43.05563331224611" lon="0.0557155075980654"><ele>794.0</ele><time>2026-04-01T10:28:57Z</time></trkpt><trkpt lat="43.05553171632615" lon="0.05588704557776708"><ele>802.6666666666667</ele><time>2026-04-01T10:28:58Z</time></trkpt><trkpt lat="43.05542746546515" lon="0.056050049135927864"><ele>811.3333333333333</ele><time>2026-04-01T10:28:59Z</time></trkpt><trkpt lat="43.055316915174316" lon="0.05621196250787499"><ele>820.0</ele><time>2026-04-01T10:29:00Z</time></trkpt><trkpt lat="43.05520497321635" lon="0.05637867063139975"><ele>820.0</ele><time>2026-04-01T10:29:01Z</time></trkpt><trkpt lat="43.05507182504671" lon="0.0565182262727394"><ele>820.0</ele><time>2026-04-01T10:29:02Z</time></trkpt><trkpt lat="43.0549529701497" lon="0.05667610140631531"><ele>820.0</ele><time>2026-04-01T10:29:03Z</time></trkpt><trkpt lat="43.0548250919046" lon="0.05679938187952547"><ele>824.6666666666666</ele><time>2026-04-01T10:29:04Z</time></trkpt><trkpt lat="43.054692863309825" lon="0.056928038168240255"><ele>829.3333333333333</ele><time>2026-04-01T10:29:05Z</time></trkpt><trkpt lat="43.05456516807436" lon="0.05703492860295884"><ele>834.0</ele><time>2026-04-01T10:29:06Z</time></trkpt><trkpt lat="43.054429486899835" lon="0.05715124485063872"><ele>834.0</ele><time>2026-04-01T10:29:07Z</time></trkpt><trkpt lat="43.054285347769664" lon="0.05727452632872288"><ele>834.0</ele><time>2026-04-01T10:29:08Z</time></trkpt><trkpt lat="43.05414227326619" lon="0.05739550236144911"><ele>834.0</ele><time>2026-04-01T10:29:09Z</time></trkpt><trkpt lat="43.053993281105" lon="0.05751869476147079"><ele>840.6666666666667</ele><time>2026-04-01T10:29:10Z</time></trkpt><trkpt lat="43.053840714656125" lon="0.057645921492941815"><ele>847.3333333333334</ele><time>2026-04-01T10:29:11Z</time></trkpt><trkpt lat="43.0536977284708" lon="0.057764787562155195"><ele>854.0</ele><time>2026-04-01T10:29:12Z</time></trkpt><trkpt lat="43.05357265152624" lon="0.05786467926038101"><ele>854.0</ele><time>2026-04-01T10:29:13Z</time></trkpt><trkpt lat="43.05346088059595" lon="0.057918577550039596"><ele>854.0000000000001</ele><time>2026-04-01T10:29:14Z</time></trkpt><trkpt lat="43.05337739206973" lon="0.05796441074512171"><ele>854.0000000000001</ele><time>2026-04-01T10:29:15Z</time></trkpt><trkpt lat="43.053292885162804" lon="0.05803183336177324"><ele>854.0</ele><time>2026-04-01T10:29:17Z</time></trkpt><trkpt lat="43.05340186439185" lon="0.05815197917320561"><ele>854.0</ele><time>2026-04-01T10:29:21Z</time></trkpt><trkpt lat="43.053500820284874" lon="0.05813734111276037"><ele>854.0</ele><time>2026-04-01T10:29:22Z</time></trkpt><trkpt lat="43.053624185278494" lon="0.05812841628098621"><ele>854.0</ele><time>2026-04-01T10:29:23Z</time></trkpt><trkpt lat="43.05374779057422" lon="0.058136211455026336"><ele>854.0</ele><time>2026-04-01T10:29:24Z</time></trkpt><trkpt lat="43.053872596135356" lon="0.058132654797616506"><ele>854.0</ele><time>2026-04-01T10:29:25Z</time></trkpt><trkpt lat="43.054006211560534" lon="0.05810808977665365"><ele>854.25</ele><time>2026-04-01T10:29:26Z</time></trkpt><trkpt lat="43.05414629731994" lon="0.058078922165044615"><ele>854.5</ele><time>2026-04-01T10:29:27Z</time></trkpt><trkpt lat="43.05428807616098" lon="0.05805093793485149"><ele>854.75</ele><time>2026-04-01T10:29:28Z</time></trkpt><trkpt lat="43.054426579663094" lon="0.05802347005221729"><ele>855.0</ele><time>2026-04-01T10:29:29Z</time></trkpt><trkpt lat="43.054569710361534" lon="0.057991816781603416"><ele>855.0</ele><time>2026-04-01T10:29:30Z</time></trkpt><trkpt lat="43.054706019525526" lon="0.05794362039295044"><ele>855.0</ele><time>2026-04-01T10:29:31Z</time></trkpt><trkpt lat="43.05483514300995" lon="0.057881944599180696"><ele>855.0</ele><time>2026-04-01T10:29:32Z</time></trkpt><trkpt lat="43.05496181939815" lon="0.05782134666235722"><ele>855.0</ele><time>2026-04-01T10:29:33Z</time></trkpt><trkpt lat="43.05509506998225" lon="0.05776179777070556"><ele>857.75</ele><time>2026-04-01T10:29:34Z</time></trkpt><trkpt lat="43.05523183000131" lon="0.057702347823947085"><ele>860.5</ele><time>2026-04-01T10:29:35Z</time></trkpt><trkpt lat="43.055372789734854" lon="0.05764140989373434"><ele>863.25</ele><time>2026-04-01T10:29:36Z</time></trkpt><trkpt lat="43.05551183088656" lon="0.05757780957081763"><ele>866.0</ele><time>2026-04-01T10:29:37Z</time></trkpt><trkpt lat="43.05564324293011" lon="0.05749827965736889"><ele>865.0</ele><time>2026-04-01T10:29:38Z</time></trkpt><trkpt lat="43.05577227062372" lon="0.05739560276266972"><ele>864.0</ele><time>2026-04-01T10:29:39Z</time></trkpt><trkpt lat="43.055898771712414" lon="0.05729123367662813"><ele>863.0</ele><time>2026-04-01T10:29:40Z</time></trkpt><trkpt lat="43.056035427792274" lon="0.05718830438743447"><ele>863.0</ele><time>2026-04-01T10:29:41Z</time></trkpt><trkpt lat="43.056177588309616" lon="0.05708686499459224"><ele>863.0</ele><time>2026-04-01T10:29:42Z</time></trkpt><trkpt lat="43.056308898970066" lon="0.0569907841374778"><ele>863.0</ele><time>2026-04-01T10:29:43Z</time></trkpt><trkpt lat="43.056437584751656" lon="0.056898455601713714"><ele>863.0</ele><time>2026-04-01T10:29:44Z</time></trkpt><trkpt lat="43.05657123097647" lon="0.05680191603764574"><ele>863.0</ele><time>2026-04-01T10:29:45Z</time></trkpt><trkpt lat="43.05671220903683" lon="0.05670718878295503"><ele>863.0</ele><time>2026-04-01T10:29:46Z</time></trkpt><trkpt lat="43.05685191161689" lon="0.05661307728530208"><ele>862.25</ele><time>2026-04-01T10:29:47Z</time></trkpt><trkpt lat="43.056996803620386" lon="0.05653105995807064"><ele>861.5</ele><time>2026-04-01T10:29:48Z</time></trkpt><trkpt lat="43.057134073757716" lon="0.05647286680348054"><ele>860.75</ele><time>2026-04-01T10:29:49Z</time></trkpt><trkpt lat="43.057272428507275" lon="0.05641962408361371"><ele>860.0</ele><time>2026-04-01T10:29:50Z</time></trkpt><trkpt lat="43.05739394467636" lon="0.05636934401117648"><ele>863.4</ele><time>2026-04-01T10:29:51Z</time></trkpt><trkpt lat="43.057499809897344" lon="0.056327831592893486"><ele>866.8</ele><time>2026-04-01T10:29:52Z</time></trkpt><trkpt lat="43.057602141987815" lon="0.05631084590809857"><ele>870.2</ele><time>2026-04-01T10:29:53Z</time></trkpt><trkpt lat="43.05770256972318" lon="0.05632248348677035"><ele>873.6</ele><time>2026-04-01T10:29:54Z</time></trkpt><trkpt lat="43.05782022391429" lon="0.05635962206696109"><ele>877.0</ele><time>2026-04-01T10:29:55Z</time></trkpt><trkpt lat="43.057948780191296" lon="0.056416193890934246"><ele>877.0</ele><time>2026-04-01T10:29:56Z</time></trkpt><trkpt lat="43.058089296460466" lon="0.05648140230809351"><ele>877.0</ele><time>2026-04-01T10:29:57Z</time></trkpt><trkpt lat="43.05823767800615" lon="0.056546887996857226"><ele>877.0</ele><time>2026-04-01T10:29:58Z</time></trkpt><trkpt lat="43.058391445159835" lon="0.05660626004828916"><ele>881.75</ele><time>2026-04-01T10:29:59Z</time></trkpt><trkpt lat="43.05853691983971" lon="0.05665893311377005"><ele>886.5</ele><time>2026-04-01T10:30:00Z</time></trkpt><trkpt lat="43.05868398785828" lon="0.056718561605710524"><ele>891.25</ele><time>2026-04-01T10:30:01Z</time></trkpt><trkpt lat="43.05880874240967" lon="0.056792625569011684"><ele>896.0</ele><time>2026-04-01T10:30:02Z</time></trkpt><trkpt lat="43.05889907594142" lon="0.0568990813325012"><ele>896.0</ele><time>2026-04-01T10:30:03Z</time></trkpt><trkpt lat="43.05894476004821" lon="0.05705568456802223"><ele>896.0</ele><time>2026-04-01T10:30:04Z</time></trkpt><trkpt lat="43.05902752868206" lon="0.05720396414145066"><ele>896.0</ele><time>2026-04-01T10:30:05Z</time></trkpt><trkpt lat="43.05910899802674" lon="0.057341711526397623"><ele>896.0</ele><time>2026-04-01T10:30:06Z</time></trkpt><trkpt lat="43.0591894679213" lon="0.057423189006029766"><ele>895.5999999999999</ele><time>2026-04-01T10:30:07Z</time></trkpt><trkpt lat="43.05925933382667" lon="0.057457763527325977"><ele>895.1999999999999</ele><time>2026-04-01T10:30:08Z</time></trkpt><trkpt lat="43.0593464356395" lon="0.0574605486000638"><ele>894.8000000000001</ele><time>2026-04-01T10:30:09Z</time></trkpt><trkpt lat="43.05947135237234" lon="0.057446219030521654"><ele>894.4000000000001</ele><time>2026-04-01T10:30:10Z</time></trkpt><trkpt lat="43.05962601875367" lon="0.05744745837409087"><ele>894.0</ele><time>2026-04-01T10:30:11Z</time></trkpt><trkpt lat="43.05978604637348" lon="0.05748395577181714"><ele>898.0</ele><time>2026-04-01T10:30:12Z</time></trkpt><trkpt lat="43.05995085637095" lon="0.05755800859050437"><ele>902.0</ele><time>2026-04-01T10:30:13Z</time></trkpt><trkpt lat="43.06010519000529" lon="0.05766113374460231"><ele>906.0</ele><time>2026-04-01T10:30:14Z</time></trkpt><trkpt lat="43.06023613628906" lon="0.05778449938562083"><ele>906.0</ele><time>2026-04-01T10:30:15Z</time></trkpt><trkpt lat="43.06034980998223" lon="0.05793636371779874"><ele>906.0</ele><time>2026-04-01T10:30:16Z</time></trkpt><trkpt lat="43.06043644154672" lon="0.05807787374426654"><ele>906.0</ele><time>2026-04-01T10:30:17Z</time></trkpt><trkpt lat="43.060514584248686" lon="0.0581858132784543"><ele>906.0</ele><time>2026-04-01T10:30:18Z</time></trkpt><trkpt lat="43.060596427359265" lon="0.058259621619506256"><ele>906.5999999999999</ele><time>2026-04-01T10:30:19Z</time></trkpt><trkpt lat="43.06068648860393" lon="0.058303482120404405"><ele>907.1999999999999</ele><time>2026-04-01T10:30:20Z</time></trkpt><trkpt lat="43.06077952535342" lon="0.05830519909235553"><ele>907.8000000000001</ele><time>2026-04-01T10:30:21Z</time></trkpt><trkpt lat="43.060872449178184" lon="0.05827466660560256"><ele>908.4000000000001</ele><time>2026-04-01T10:30:22Z</time></trkpt><trkpt lat="43.06098051373427" lon="0.0582242215105291"><ele>909.0</ele><time>2026-04-01T10:30:23Z</time></trkpt><trkpt lat="43.061112452011194" lon="0.058197558262024544"><ele>909.0</ele><time>2026-04-01T10:30:24Z</time></trkpt><trkpt lat="43.06126290868116" lon="0.05821527465029999"><ele>909.0</ele><time>2026-04-01T10:30:25Z</time></trkpt><trkpt lat="43.06141555082052" lon="0.058269721474331314"><ele>909.0</ele><time>2026-04-01T10:30:26Z</time></trkpt><trkpt lat="43.061581146442194" lon="0.05834871648419856"><ele>906.3333333333333</ele><time>2026-04-01T10:30:27Z</time></trkpt><trkpt lat="43.06173773740795" lon="0.05843311123877576"><ele>903.6666666666666</ele><time>2026-04-01T10:30:28Z</time></trkpt><trkpt lat="43.06188142518206" lon="0.05851968499998058"><ele>901.0</ele><time>2026-04-01T10:30:29Z</time></trkpt><trkpt lat="43.06201010155766" lon="0.05859967707063364"><ele>901.0</ele><time>2026-04-01T10:30:30Z</time></trkpt><trkpt lat="43.062134335510756" lon="0.058683800209401754"><ele>901.0</ele><time>2026-04-01T10:30:31Z</time></trkpt><trkpt lat="43.06225297002377" lon="0.05876016382621225"><ele>901.0</ele><time>2026-04-01T10:30:32Z</time></trkpt><trkpt lat="43.062370381143076" lon="0.05882542013350351"><ele>901.0</ele><time>2026-04-01T10:30:33Z</time></trkpt><trkpt lat="43.06249410289389" lon="0.05886476717537058"><ele>900.0</ele><time>2026-04-01T10:30:34Z</time></trkpt><trkpt lat="43.06261943193185" lon="0.05888171715631835"><ele>899.0</ele><time>2026-04-01T10:30:35Z</time></trkpt><trkpt lat="43.06275091750873" lon="0.058893348066135734"><ele>898.0</ele><time>2026-04-01T10:30:36Z</time></trkpt><trkpt lat="43.06289749343705" lon="0.05889290331097749"><ele>897.0</ele><time>2026-04-01T10:30:37Z</time></trkpt><trkpt lat="43.06305257366918" lon="0.058878978754848404"><ele>897.0</ele><time>2026-04-01T10:30:38Z</time></trkpt><trkpt lat="43.06320593980889" lon="0.05886028842639759"><ele>897.0</ele><time>2026-04-01T10:30:39Z</time></trkpt><trkpt lat="43.063361735459495" lon="0.05883815947117301"><ele>897.0</ele><time>2026-04-01T10:30:40Z</time></trkpt><trkpt lat="43.063514988576514" lon="0.058822692714504875"><ele>893.3333333333333</ele><time>2026-04-01T10:30:41Z</time></trkpt><trkpt lat="43.06366228398528" lon="0.05882298784313894"><ele>889.6666666666666</ele><time>2026-04-01T10:30:42Z</time></trkpt><trkpt lat="43.06381340008609" lon="0.058833922106705565"><ele>886.0</ele><time>2026-04-01T10:30:43Z</time></trkpt><trkpt lat="43.063965532305616" lon="0.05884440264793838"><ele>883.25</ele><time>2026-04-01T10:30:44Z</time></trkpt><trkpt lat="43.064114197674854" lon="0.05885898328478378"><ele>880.5</ele><time>2026-04-01T10:30:45Z</time></trkpt><trkpt lat="43.06425880222759" lon="0.05888139267885415"><ele>877.75</ele><time>2026-04-01T10:30:46Z</time></trkpt><trkpt lat="43.06439693407898" lon="0.05890991723903115"><ele>875.0</ele><time>2026-04-01T10:30:47Z</time></trkpt><trkpt lat="43.06454035635052" lon="0.05894090553498556"><ele>875.0</ele><time>2026-04-01T10:30:48Z</time></trkpt><trkpt lat="43.06470168862492" lon="0.05897481150414014"><ele>875.0</ele><time>2026-04-01T10:30:49Z</time></trkpt><trkpt lat="43.06488102058674" lon="0.05900848389244256"><ele>875.0</ele><time>2026-04-01T10:30:50Z</time></trkpt><trkpt lat="43.06506072364982" lon="0.05901271268367773"><ele>870.0</ele><time>2026-04-01T10:30:51Z</time></trkpt><trkpt lat="43.065238210767525" lon="0.059005172335079625"><ele>865.0</ele><time>2026-04-01T10:30:52Z</time></trkpt><trkpt lat="43.065405514315" lon="0.05899423729382958"><ele>860.0</ele><time>2026-04-01T10:30:53Z</time></trkpt><trkpt lat="43.065570273200485" lon="0.058988030037611223"><ele>860.0</ele><time>2026-04-01T10:30:54Z</time></trkpt><trkpt lat="43.06572900258366" lon="0.05898140555491363"><ele>860.0</ele><time>2026-04-01T10:30:55Z</time></trkpt><trkpt lat="43.06589044582979" lon="0.05896427822451937"><ele>860.0</ele><time>2026-04-01T10:30:56Z</time></trkpt><trkpt lat="43.06603917784599" lon="0.058940742332520814"><ele>856.5</ele><time>2026-04-01T10:30:57Z</time></trkpt><trkpt lat="43.06618079802138" lon="0.05891707088565866"><ele>853.0</ele><time>2026-04-01T10:30:58Z</time></trkpt><trkpt lat="43.06632083237322" lon="0.05889534316946533"><ele>849.5</ele><time>2026-04-01T10:30:59Z</time></trkpt><trkpt lat="43.06645572059284" lon="0.0588743222213154"><ele>846.0</ele><time>2026-04-01T10:31:00Z</time></trkpt><trkpt lat="43.0665890284229" lon="0.05886378753519432"><ele>843.25</ele><time>2026-04-01T10:31:01Z</time></trkpt><trkpt lat="43.066724867859506" lon="0.058864898912126484"><ele>840.5</ele><time>2026-04-01T10:31:02Z</time></trkpt><trkpt lat="43.066857166420455" lon="0.058866885507812314"><ele>837.75</ele><time>2026-04-01T10:31:03Z</time></trkpt><trkpt lat="43.06699086419265" lon="0.05887112799493291"><ele>835.0</ele><time>2026-04-01T10:31:04Z</time></trkpt><trkpt lat="43.06712780542946" lon="0.05887372566458596"><ele>835.0</ele><time>2026-04-01T10:31:05Z</time></trkpt><trkpt lat="43.06726506728931" lon="0.0588744541700701"><ele>835.0</ele><time>2026-04-01T10:31:06Z</time></trkpt><trkpt lat="43.06740728858097" lon="0.058880818301604264"><ele>835.0</ele><time>2026-04-01T10:31:07Z</time></trkpt><trkpt lat="43.06755437368576" lon="0.05887025436940203"><ele>835.0</ele><time>2026-04-01T10:31:08Z</time></trkpt><trkpt lat="43.067696554813374" lon="0.058821396516204896"><ele>833.5</ele><time>2026-04-01T10:31:09Z</time></trkpt><trkpt lat="43.067826874852656" lon="0.058728394570710565"><ele>832.0</ele><time>2026-04-01T10:31:10Z</time></trkpt><trkpt lat="43.06793005001942" lon="0.058591778946057764"><ele>830.5</ele><time>2026-04-01T10:31:11Z</time></trkpt><trkpt lat="43.06802173966947" lon="0.05843901369671064"><ele>829.0</ele><time>2026-04-01T10:31:12Z</time></trkpt><trkpt lat="43.068098743513985" lon="0.05827653063373312"><ele>824.75</ele><time>2026-04-01T10:31:13Z</time></trkpt><trkpt lat="43.06814507480814" lon="0.058102540443085056"><ele>820.5</ele><time>2026-04-01T10:31:14Z</time></trkpt><trkpt lat="43.06818565285954" lon="0.05793066795646918"><ele>816.25</ele><time>2026-04-01T10:31:15Z</time></trkpt><trkpt lat="43.06820301391641" lon="0.05777785595336812"><ele>812.0</ele><time>2026-04-01T10:31:16Z</time></trkpt><trkpt lat="43.06821835993453" lon="0.05766226212034303"><ele>814.25</ele><time>2026-04-01T10:31:17Z</time></trkpt><trkpt lat="43.06828523570808" lon="0.057563908237994815"><ele>816.5</ele><time>2026-04-01T10:31:19Z</time></trkpt><trkpt lat="43.0683879278336" lon="0.05759632184406943"><ele>818.75</ele><time>2026-04-01T10:31:21Z</time></trkpt><trkpt lat="43.06842009437322" lon="0.057746312704466445"><ele>821.0</ele><time>2026-04-01T10:31:22Z</time></trkpt><trkpt lat="43.06849179157986" lon="0.05789887825363385"><ele>821.0</ele><time>2026-04-01T10:31:23Z</time></trkpt><trkpt lat="43.06857996094593" lon="0.058064619658122124"><ele>821.0</ele><time>2026-04-01T10:31:24Z</time></trkpt><trkpt lat="43.06867583901292" lon="0.05822017649060879"><ele>821.0</ele><time>2026-04-01T10:31:25Z</time></trkpt><trkpt lat="43.0687846382838" lon="0.05837920253819287"><ele>823.3333333333334</ele><time>2026-04-01T10:31:26Z</time></trkpt><trkpt lat="43.06889162461661" lon="0.058528124491643796"><ele>825.6666666666667</ele><time>2026-04-01T10:31:27Z</time></trkpt><trkpt lat="43.06900012912713" lon="0.05866890307455226"><ele>828.0</ele><time>2026-04-01T10:31:28Z</time></trkpt><trkpt lat="43.06912391380689" lon="0.05878427247931044"><ele>820.6666666666667</ele><time>2026-04-01T10:31:29Z</time></trkpt><trkpt lat="43.06927403592949" lon="0.05885328776450047"><ele>813.3333333333334</ele><time>2026-04-01T10:31:30Z</time></trkpt><trkpt lat="43.06944361665952" lon="0.058891923283042116"><ele>806.0</ele><time>2026-04-01T10:31:31Z</time></trkpt><trkpt lat="43.069617203729905" lon="0.0589410809172776"><ele>806.0</ele><time>2026-04-01T10:31:32Z</time></trkpt><trkpt lat="43.06977866522983" lon="0.05900837050027094"><ele>806.0</ele><time>2026-04-01T10:31:33Z</time></trkpt><trkpt lat="43.06990496799798" lon="0.05907311415548233"><ele>806.0</ele><time>2026-04-01T10:31:34Z</time></trkpt><trkpt lat="43.070028605048435" lon="0.059148296900929764"><ele>806.0</ele><time>2026-04-01T10:31:35Z</time></trkpt><trkpt lat="43.070153441944136" lon="0.05925389685475659"><ele>806.3333333333334</ele><time>2026-04-01T10:31:36Z</time></trkpt><trkpt lat="43.070273891247126" lon="0.05938712410459646"><ele>806.6666666666667</ele><time>2026-04-01T10:31:37Z</time></trkpt><trkpt lat="43.07038082016895" lon="0.059527331858672906"><ele>807.0</ele><time>2026-04-01T10:31:38Z</time></trkpt><trkpt lat="43.0704904964842" lon="0.05967045434189651"><ele>807.0</ele><time>2026-04-01T10:31:39Z</time></trkpt><trkpt lat="43.07062114640659" lon="0.05980733470407133"><ele>807.0</ele><time>2026-04-01T10:31:40Z</time></trkpt><trkpt lat="43.07075977230532" lon="0.059939114532295876"><ele>807.0</ele><time>2026-04-01T10:31:41Z</time></trkpt><trkpt lat="43.070894422812536" lon="0.060066145523567066"><ele>802.3333333333333</ele><time>2026-04-01T10:31:42Z</time></trkpt><trkpt lat="43.07103344546776" lon="0.0601987681901029"><ele>797.6666666666666</ele><time>2026-04-01T10:31:43Z</time></trkpt><trkpt lat="43.07117001211791" lon="0.06031958321649897"><ele>793.0</ele><time>2026-04-01T10:31:44Z</time></trkpt><trkpt lat="43.07131452003426" lon="0.060451306941263834"><ele>793.0</ele><time>2026-04-01T10:31:45Z</time></trkpt><trkpt lat="43.071443576060254" lon="0.060578419490285175"><ele>793.0</ele><time>2026-04-01T10:31:46Z</time></trkpt><trkpt lat="43.07156481547146" lon="0.06070922922484133"><ele>793.0</ele><time>2026-04-01T10:31:47Z</time></trkpt><trkpt lat="43.07165573224014" lon="0.06083327405601503"><ele>793.0</ele><time>2026-04-01T10:31:48Z</time></trkpt><trkpt lat="43.071725722045876" lon="0.06096771818497219"><ele>787.75</ele><time>2026-04-01T10:31:49Z</time></trkpt><trkpt lat="43.07174147111388" lon="0.06113936741570921"><ele>782.5</ele><time>2026-04-01T10:31:50Z</time></trkpt><trkpt lat="43.071726426261485" lon="0.06129408095303981"><ele>777.25</ele><time>2026-04-01T10:31:51Z</time></trkpt><trkpt lat="43.07167661826665" lon="0.06143670999597214"><ele>772.0</ele><time>2026-04-01T10:31:52Z</time></trkpt><trkpt lat="43.07163160154384" lon="0.061594913088217164"><ele>780.3333333333333</ele><time>2026-04-01T10:31:53Z</time></trkpt><trkpt lat="43.07156282193867" lon="0.061752940767026115"><ele>788.6666666666667</ele><time>2026-04-01T10:31:54Z</time></trkpt><trkpt lat="43.071512158109016" lon="0.061968229841007624"><ele>797.0</ele><time>2026-04-01T10:31:55Z</time></trkpt><trkpt lat="43.071478193232835" lon="0.062201716501968714"><ele>797.0</ele><time>2026-04-01T10:31:56Z</time></trkpt><trkpt lat="43.07144964229232" lon="0.0624305350736658"><ele>797.0</ele><time>2026-04-01T10:31:57Z</time></trkpt><trkpt lat="43.071418830102544" lon="0.06263512615167871"><ele>797.0</ele><time>2026-04-01T10:31:58Z</time></trkpt><trkpt lat="43.07139383011303" lon="0.06285591054616634"><ele>792.3333333333334</ele><time>2026-04-01T10:31:59Z</time></trkpt><trkpt lat="43.07137882936612" lon="0.06307137755450214"><ele>787.6666666666667</ele><time>2026-04-01T10:32:00Z</time></trkpt><trkpt lat="43.07138124596344" lon="0.0632979863706613"><ele>783.0</ele><time>2026-04-01T10:32:01Z</time></trkpt><trkpt lat="43.07139573191696" lon="0.06352754478442267"><ele>775.3333333333334</ele><time>2026-04-01T10:32:02Z</time></trkpt><trkpt lat="43.07143280337187" lon="0.06375143767847631"><ele>767.6666666666667</ele><time>2026-04-01T10:32:03Z</time></trkpt><trkpt lat="43.07149250936227" lon="0.06397932593386868"><ele>760.0</ele><time>2026-04-01T10:32:04Z</time></trkpt><trkpt lat="43.07158102800971" lon="0.0641989529828726"><ele>754.3333333333334</ele><time>2026-04-01T10:32:05Z</time></trkpt><trkpt lat="43.07168604529012" lon="0.06441616028327692"><ele>748.6666666666666</ele><time>2026-04-01T10:32:06Z</time></trkpt><trkpt lat="43.07179113935858" lon="0.06460834306515946"><ele>743.0</ele><time>2026-04-01T10:32:07Z</time></trkpt><trkpt lat="43.07188037692735" lon="0.06475864251933747"><ele>743.0</ele><time>2026-04-01T10:32:08Z</time></trkpt><trkpt lat="43.071979157044986" lon="0.06491384498038902"><ele>743.0</ele><time>2026-04-01T10:32:09Z</time></trkpt><trkpt lat="43.07210347538485" lon="0.06507928043032933"><ele>743.0</ele><time>2026-04-01T10:32:10Z</time></trkpt><trkpt lat="43.07222855773034" lon="0.06522741822541885"><ele>741.6666666666666</ele><time>2026-04-01T10:32:11Z</time></trkpt><trkpt lat="43.072336316227236" lon="0.06536451539404152"><ele>740.3333333333334</ele><time>2026-04-01T10:32:12Z</time></trkpt><trkpt lat="43.07243333628998" lon="0.06551769684416779"><ele>739.0</ele><time>2026-04-01T10:32:13Z</time></trkpt><trkpt lat="43.07252523264096" lon="0.06570412788724102"><ele>739.6666666666667</ele><time>2026-04-01T10:32:14Z</time></trkpt><trkpt lat="43.07262834442408" lon="0.06591086201162558"><ele>740.3333333333334</ele><time>2026-04-01T10:32:15Z</time></trkpt><trkpt lat="43.07271603889144" lon="0.06610626220844897"><ele>741.0</ele><time>2026-04-01T10:32:16Z</time></trkpt><trkpt lat="43.07280592058645" lon="0.06632689626176766"><ele>741.0</ele><time>2026-04-01T10:32:17Z</time></trkpt><trkpt lat="43.07288514920827" lon="0.06652480293618497"><ele>741.0</ele><time>2026-04-01T10:32:18Z</time></trkpt><trkpt lat="43.07297119477874" lon="0.06672258507203209"><ele>741.0</ele><time>2026-04-01T10:32:19Z</time></trkpt><trkpt lat="43.073068108429844" lon="0.06695145678373321"><ele>741.3333333333334</ele><time>2026-04-01T10:32:20Z</time></trkpt><trkpt lat="43.07313684946916" lon="0.06716468285594651"><ele>741.6666666666667</ele><time>2026-04-01T10:32:21Z</time></trkpt><trkpt lat="43.073205785714684" lon="0.06738368119501856"><ele>742.0</ele><time>2026-04-01T10:32:22Z</time></trkpt><trkpt lat="43.07326113971477" lon="0.06756591327464931"><ele>739.25</ele><time>2026-04-01T10:32:23Z</time></trkpt><trkpt lat="43.07331304967751" lon="0.06774720238683499"><ele>736.5</ele><time>2026-04-01T10:32:24Z</time></trkpt><trkpt lat="43.0733545904426" lon="0.06791554688583884"><ele>733.75</ele><time>2026-04-01T10:32:25Z</time></trkpt><trkpt lat="43.07337886536451" lon="0.06806618926922216"><ele>731.0</ele><time>2026-04-01T10:32:26Z</time></trkpt><trkpt lat="43.073377831600425" lon="0.06821178691660174"><ele>731.0</ele><time>2026-04-01T10:32:27Z</time></trkpt><trkpt lat="43.073351199810155" lon="0.06835758526731973"><ele>731.0</ele><time>2026-04-01T10:32:28Z</time></trkpt><trkpt lat="43.073278954879726" lon="0.06847455191880156"><ele>731.0</ele><time>2026-04-01T10:32:29Z</time></trkpt><trkpt lat="43.073236596286144" lon="0.06859423998327727"><ele>731.0</ele><time>2026-04-01T10:32:30Z</time></trkpt><trkpt lat="43.07318735744188" lon="0.06866369105662781"><ele>731.0</ele><time>2026-04-01T10:32:31Z</time></trkpt><trkpt lat="43.073256931725986" lon="0.06881354580119627"><ele>731.0</ele><time>2026-04-01T10:32:34Z</time></trkpt><trkpt lat="43.07332455253193" lon="0.06880998942956616"><ele>731.0</ele><time>2026-04-01T10:32:35Z</time></trkpt><trkpt lat="43.07339569939686" lon="0.06879338763944641"><ele>731.0</ele><time>2026-04-01T10:32:36Z</time></trkpt><trkpt lat="43.073501580116094" lon="0.06877344907912351"><ele>731.0</ele><time>2026-04-01T10:32:37Z</time></trkpt><trkpt lat="43.073639802703575" lon="0.06875519074172537"><ele>731.0</ele><time>2026-04-01T10:32:38Z</time></trkpt><trkpt lat="43.073786493818204" lon="0.06876514011484303"><ele>731.0</ele><time>2026-04-01T10:32:39Z</time></trkpt><trkpt lat="43.073924222172536" lon="0.0688119755903416"><ele>731.0</ele><time>2026-04-01T10:32:40Z</time></trkpt><trkpt lat="43.074052076735676" lon="0.06890913653659483"><ele>731.0</ele><time>2026-04-01T10:32:41Z</time></trkpt><trkpt lat="43.074188394088175" lon="0.06898901161014892"><ele>731.0</ele><time>2026-04-01T10:32:42Z</time></trkpt><trkpt lat="43.074316182276576" lon="0.06908047086410264"><ele>726.5</ele><time>2026-04-01T10:32:43Z</time></trkpt><trkpt lat="43.07445608175985" lon="0.06913702411729711"><ele>722.0</ele><time>2026-04-01T10:32:44Z</time></trkpt><trkpt lat="43.07461116452944" lon="0.06917901004132951"><ele>717.5</ele><time>2026-04-01T10:32:45Z</time></trkpt><trkpt lat="43.07474468931753" lon="0.06920292595167819"><ele>713.0</ele><time>2026-04-01T10:32:46Z</time></trkpt><trkpt lat="43.074878260658174" lon="0.06921089219604772"><ele>714.5</ele><time>2026-04-01T10:32:47Z</time></trkpt><trkpt lat="43.07500296440361" lon="0.06918739532830726"><ele>716.0</ele><time>2026-04-01T10:32:48Z</time></trkpt><trkpt lat="43.07512884057355" lon="0.0691404596325722"><ele>717.5</ele><time>2026-04-01T10:32:49Z</time></trkpt><trkpt lat="43.075252629108" lon="0.0690942109240708"><ele>719.0</ele><time>2026-04-01T10:32:50Z</time></trkpt><trkpt lat="43.07537871908086" lon="0.06906146266647345"><ele>719.0</ele><time>2026-04-01T10:32:51Z</time></trkpt><trkpt lat="43.07550255376184" lon="0.06905153186557375"><ele>719.0</ele><time>2026-04-01T10:32:52Z</time></trkpt><trkpt lat="43.07562196192999" lon="0.06907179945657654"><ele>719.0</ele><time>2026-04-01T10:32:53Z</time></trkpt><trkpt lat="43.07572814181443" lon="0.06913297122235046"><ele>719.0</ele><time>2026-04-01T10:32:54Z</time></trkpt><trkpt lat="43.07582733931726" lon="0.06922987033920303"><ele>713.75</ele><time>2026-04-01T10:32:55Z</time></trkpt><trkpt lat="43.07595272473176" lon="0.06929731162513166"><ele>708.5</ele><time>2026-04-01T10:32:56Z</time></trkpt><trkpt lat="43.07606584203394" lon="0.06937209425049805"><ele>703.25</ele><time>2026-04-01T10:32:57Z</time></trkpt><trkpt lat="43.07617517216332" lon="0.06942767169682568"><ele>698.0</ele><time>2026-04-01T10:32:58Z</time></trkpt><trkpt lat="43.0762800782103" lon="0.06948025476491994"><ele>698.0</ele><time>2026-04-01T10:32:59Z</time></trkpt><trkpt lat="43.07635985991022" lon="0.06953304922018466"><ele>698.0</ele><time>2026-04-01T10:33:00Z</time></trkpt><trkpt lat="43.076418107287644" lon="0.0695781183235443"><ele>698.0</ele><time>2026-04-01T10:33:01Z</time></trkpt><trkpt lat="43.07649625594366" lon="0.06965008630495609"><ele>698.0</ele><time>2026-04-01T10:33:02Z</time></trkpt><trkpt lat="43.07661834609245" lon="0.06975782414253641"><ele>698.0</ele><time>2026-04-01T10:33:03Z</time></trkpt><trkpt lat="43.076764837082436" lon="0.06989060150986479"><ele>693.0</ele><time>2026-04-01T10:33:04Z</time></trkpt><trkpt lat="43.07691999413184" lon="0.07001763059456466"><ele>688.0</ele><time>2026-04-01T10:33:05Z</time></trkpt><trkpt lat="43.07706271728912" lon="0.07011656580181654"><ele>683.0</ele><time>2026-04-01T10:33:06Z</time></trkpt><trkpt lat="43.07718288161527" lon="0.07018920072192295"><ele>683.0</ele><time>2026-04-01T10:33:07Z</time></trkpt><trkpt lat="43.07728700172284" lon="0.07025066307772154"><ele>683.0</ele><time>2026-04-01T10:33:08Z</time></trkpt><trkpt lat="43.077365091578926" lon="0.07029693184550861"><ele>683.0</ele><time>2026-04-01T10:33:09Z</time></trkpt><trkpt lat="43.07743384395898" lon="0.07030634027241855"><ele>683.0</ele><time>2026-04-01T10:33:10Z</time></trkpt><trkpt lat="43.077495363983054" lon="0.07027443608256577"><ele>683.0</ele><time>2026-04-01T10:33:11Z</time></trkpt><trkpt lat="43.07761966531643" lon="0.07022170142889886"><ele>682.25</ele><time>2026-04-01T10:33:13Z</time></trkpt><trkpt lat="43.077710225967856" lon="0.07026126518289309"><ele>681.5</ele><time>2026-04-01T10:33:14Z</time></trkpt><trkpt lat="43.07778304557213" lon="0.07036887381905184"><ele>680.75</ele><time>2026-04-01T10:33:15Z</time></trkpt><trkpt lat="43.07785593864123" lon="0.07049524295698856"><ele>680.0</ele><time>2026-04-01T10:33:16Z</time></trkpt><trkpt lat="43.0779286108387" lon="0.07065080438137936"><ele>684.3333333333333</ele><time>2026-04-01T10:33:17Z</time></trkpt><trkpt lat="43.07799055086163" lon="0.0708418350682731"><ele>688.6666666666666</ele><time>2026-04-01T10:33:18Z</time></trkpt><trkpt lat="43.078078032224894" lon="0.07105461290328498"><ele>693.0</ele><time>2026-04-01T10:33:19Z</time></trkpt><trkpt lat="43.07820540485692" lon="0.07128791645870297"><ele>686.3333333333334</ele><time>2026-04-01T10:33:20Z</time></trkpt><trkpt lat="43.07831188964929" lon="0.07150912876168246"><ele>679.6666666666667</ele><time>2026-04-01T10:33:21Z</time></trkpt><trkpt lat="43.07840565396221" lon="0.07173036638203288"><ele>673.0</ele><time>2026-04-01T10:33:22Z</time></trkpt><trkpt lat="43.078496478685466" lon="0.07195166032954398"><ele>673.0</ele><time>2026-04-01T10:33:23Z</time></trkpt><trkpt lat="43.07858618381624" lon="0.07216559176817361"><ele>673.0</ele><time>2026-04-01T10:33:24Z</time></trkpt><trkpt lat="43.078677535697466" lon="0.07237662809175206"><ele>673.0</ele><time>2026-04-01T10:33:25Z</time></trkpt><trkpt lat="43.07876990243257" lon="0.0725960634180802"><ele>669.3333333333334</ele><time>2026-04-01T10:33:26Z</time></trkpt><trkpt lat="43.078859829726916" lon="0.07280889707377262"><ele>665.6666666666666</ele><time>2026-04-01T10:33:27Z</time></trkpt><trkpt lat="43.07895217103921" lon="0.07301221331631698"><ele>662.0</ele><time>2026-04-01T10:33:28Z</time></trkpt><trkpt lat="43.07904481227838" lon="0.0732087864230299"><ele>662.6666666666666</ele><time>2026-04-01T10:33:29Z</time></trkpt><trkpt lat="43.07914922870064" lon="0.07337840008656638"><ele>663.3333333333334</ele><time>2026-04-01T10:33:30Z</time></trkpt><trkpt lat="43.079278067173085" lon="0.0735101808916689"><ele>664.0</ele><time>2026-04-01T10:33:31Z</time></trkpt><trkpt lat="43.07943529203474" lon="0.07364057669230742"><ele>664.0</ele><time>2026-04-01T10:33:32Z</time></trkpt><trkpt lat="43.079604317958584" lon="0.07380337987595637"><ele>664.0</ele><time>2026-04-01T10:33:33Z</time></trkpt><trkpt lat="43.07974881901843" lon="0.07395995784123244"><ele>664.0</ele><time>2026-04-01T10:33:34Z</time></trkpt><trkpt lat="43.0798838742931" lon="0.07411091782725196"><ele>664.6666666666667</ele><time>2026-04-01T10:33:35Z</time></trkpt><trkpt lat="43.08001248827552" lon="0.07425663061769845"><ele>665.3333333333334</ele><time>2026-04-01T10:33:36Z</time></trkpt><trkpt lat="43.080140186897964" lon="0.07441161106115421"><ele>666.0</ele><time>2026-04-01T10:33:37Z</time></trkpt><trkpt lat="43.08021753818345" lon="0.07460929673665478"><ele>666.0</ele><time>2026-04-01T10:33:38Z</time></trkpt><trkpt lat="43.08032426917078" lon="0.07475564692187897"><ele>666.0</ele><time>2026-04-01T10:33:39Z</time></trkpt><trkpt lat="43.08039339049679" lon="0.07492611202780781"><ele>666.0</ele><time>2026-04-01T10:33:40Z</time></trkpt><trkpt lat="43.08038615395012" lon="0.07511098129389474"><ele>666.0</ele><time>2026-04-01T10:33:41Z</time></trkpt><trkpt lat="43.08039756221082" lon="0.07532056410644178"><ele>658.6666666666666</ele><time>2026-04-01T10:33:42Z</time></trkpt><trkpt lat="43.080455138572425" lon="0.07554308920953783"><ele>651.3333333333333</ele><time>2026-04-01T10:33:43Z</time></trkpt><trkpt lat="43.080500676469114" lon="0.07577648223072402"><ele>644.0</ele><time>2026-04-01T10:33:44Z</time></trkpt><trkpt lat="43.08054482479696" lon="0.07595418474249896"><ele>641.6</ele><time>2026-04-01T10:33:45Z</time></trkpt><trkpt lat="43.08058105284208" lon="0.07609420958596526"><ele>639.2</ele><time>2026-04-01T10:33:46Z</time></trkpt><trkpt lat="43.08062354577005" lon="0.07620176704322039"><ele>636.8000000000001</ele><time>2026-04-01T10:33:47Z</time></trkpt><trkpt lat="43.08069067238395" lon="0.0762648304245639"><ele>634.4000000000001</ele><time>2026-04-01T10:33:48Z</time></trkpt><trkpt lat="43.080776810237275" lon="0.07627476866421765"><ele>632.0</ele><time>2026-04-01T10:33:49Z</time></trkpt><trkpt lat="43.08085009649534" lon="0.07621707847492173"><ele>639.0</ele><time>2026-04-01T10:33:50Z</time></trkpt><trkpt lat="43.0809230924765" lon="0.07610895697543636"><ele>646.0</ele><time>2026-04-01T10:33:51Z</time></trkpt><trkpt lat="43.08101427215071" lon="0.07598130147103664"><ele>653.0</ele><time>2026-04-01T10:33:52Z</time></trkpt><trkpt lat="43.0811229753432" lon="0.07588888197219931"><ele>660.0</ele><time>2026-04-01T10:33:53Z</time></trkpt><trkpt lat="43.0812580097828" lon="0.07588231748694431"><ele>660.0</ele><time>2026-04-01T10:33:54Z</time></trkpt><trkpt lat="43.08141084741348" lon="0.07590514136530832"><ele>660.0</ele><time>2026-04-01T10:33:55Z</time></trkpt><trkpt lat="43.081561766925226" lon="0.07584950960555636"><ele>660.0</ele><time>2026-04-01T10:33:56Z</time></trkpt><trkpt lat="43.08172211564439" lon="0.07582468399179165"><ele>661.0</ele><time>2026-04-01T10:33:57Z</time></trkpt><trkpt lat="43.08186843569868" lon="0.07586871430439732"><ele>662.0</ele><time>2026-04-01T10:33:58Z</time></trkpt><trkpt lat="43.08199135884559" lon="0.07585355333979359"><ele>663.0</ele><time>2026-04-01T10:33:59Z</time></trkpt><trkpt lat="43.082103483743175" lon="0.07580763565606734"><ele>664.0</ele><time>2026-04-01T10:34:00Z</time></trkpt><trkpt lat="43.082190967936114" lon="0.07569693318939377"><ele>666.5</ele><time>2026-04-01T10:34:01Z</time></trkpt><trkpt lat="43.082279560993015" lon="0.07557274675275352"><ele>669.0</ele><time>2026-04-01T10:34:02Z</time></trkpt><trkpt lat="43.08241342457504" lon="0.07548596357699175"><ele>671.5</ele><time>2026-04-01T10:34:03Z</time></trkpt><trkpt lat="43.08256792520984" lon="0.07541199252382971"><ele>674.0</ele><time>2026-04-01T10:34:04Z</time></trkpt><trkpt lat="43.08270911293787" lon="0.07528561488017811"><ele>674.0</ele><time>2026-04-01T10:34:05Z</time></trkpt><trkpt lat="43.0828490489102" lon="0.07521340811069314"><ele>674.0</ele><time>2026-04-01T10:34:06Z</time></trkpt><trkpt lat="43.082998585838624" lon="0.0751998950455147"><ele>674.0</ele><time>2026-04-01T10:34:07Z</time></trkpt><trkpt lat="43.08315552447283" lon="0.07522386860886245"><ele>669.5</ele><time>2026-04-01T10:34:08Z</time></trkpt><trkpt lat="43.08330311671198" lon="0.07522677556461266"><ele>665.0</ele><time>2026-04-01T10:34:09Z</time></trkpt><trkpt lat="43.08344331950193" lon="0.07517775029694594"><ele>660.5</ele><time>2026-04-01T10:34:10Z</time></trkpt><trkpt lat="43.083564437203044" lon="0.07511532009189253"><ele>656.0</ele><time>2026-04-01T10:34:11Z</time></trkpt><trkpt lat="43.08367629477816" lon="0.07508820813847941"><ele>656.0</ele><time>2026-04-01T10:34:12Z</time></trkpt><trkpt lat="43.08378726086601" lon="0.07510274892489005"><ele>656.0</ele><time>2026-04-01T10:34:13Z</time></trkpt><trkpt lat="43.083878578251706" lon="0.07516822072177891"><ele>656.0</ele><time>2026-04-01T10:34:14Z</time></trkpt><trkpt lat="43.08393057566713" lon="0.07531479630744951"><ele>656.0</ele><time>2026-04-01T10:34:15Z</time></trkpt><trkpt lat="43.0839821764577" lon="0.07546845124151244"><ele>656.0</ele><time>2026-04-01T10:34:16Z</time></trkpt><trkpt lat="43.084080853790034" lon="0.07561245843466739"><ele>656.0</ele><time>2026-04-01T10:34:17Z</time></trkpt><trkpt lat="43.08416789215376" lon="0.07579718692660185"><ele>656.0</ele><time>2026-04-01T10:34:18Z</time></trkpt><trkpt lat="43.08423725609782" lon="0.07596383899958356"><ele>656.0</ele><time>2026-04-01T10:34:19Z</time></trkpt><trkpt lat="43.0842765236126" lon="0.07611131929389092"><ele>656.25</ele><time>2026-04-01T10:34:20Z</time></trkpt><trkpt lat="43.08426087423398" lon="0.07623520820340371"><ele>656.5</ele><time>2026-04-01T10:34:21Z</time></trkpt><trkpt lat="43.08421308204581" lon="0.07634291885813087"><ele>656.75</ele><time>2026-04-01T10:34:22Z</time></trkpt><trkpt lat="43.084154189643165" lon="0.07650422497621114"><ele>657.0</ele><time>2026-04-01T10:34:23Z</time></trkpt><trkpt lat="43.08409702198511" lon="0.07670483368137267"><ele>646.3333333333334</ele><time>2026-04-01T10:34:24Z</time></trkpt><trkpt lat="43.0840148362478" lon="0.07692000203365099"><ele>635.6666666666667</ele><time>2026-04-01T10:34:25Z</time></trkpt><trkpt lat="43.08393604785964" lon="0.07715337428937762"><ele>625.0</ele><time>2026-04-01T10:34:26Z</time></trkpt><trkpt lat="43.08386088454347" lon="0.07737090493531508"><ele>627.0</ele><time>2026-04-01T10:34:27Z</time></trkpt><trkpt lat="43.08378861910867" lon="0.07758167336281459"><ele>629.0</ele><time>2026-04-01T10:34:28Z</time></trkpt><trkpt lat="43.08371516556729" lon="0.07780023498029566"><ele>631.0</ele><time>2026-04-01T10:34:29Z</time></trkpt><trkpt lat="43.08364202875212" lon="0.07802406356251988"><ele>631.0</ele><time>2026-04-01T10:34:30Z</time></trkpt><trkpt lat="43.08356965960609" lon="0.07823998878872082"><ele>631.0</ele><time>2026-04-01T10:34:31Z</time></trkpt><trkpt lat="43.08350472829957" lon="0.07844305459604173"><ele>631.0</ele><time>2026-04-01T10:34:32Z</time></trkpt><trkpt lat="43.08345456328271" lon="0.07860969011629873"><ele>632.5</ele><time>2026-04-01T10:34:33Z</time></trkpt><trkpt lat="43.08343546354158" lon="0.07878447676178588"><ele>634.0</ele><time>2026-04-01T10:34:34Z</time></trkpt><trkpt lat="43.08345309448896" lon="0.07896165486995417"><ele>635.5</ele><time>2026-04-01T10:34:35Z</time></trkpt><trkpt lat="43.08350388575531" lon="0.07912740005702451"><ele>637.0</ele><time>2026-04-01T10:34:36Z</time></trkpt><trkpt lat="43.08355492204889" lon="0.07927535387621511"><ele>637.0</ele><time>2026-04-01T10:34:37Z</time></trkpt><trkpt lat="43.08357769910519" lon="0.07942956112530682"><ele>637.0</ele><time>2026-04-01T10:34:38Z</time></trkpt><trkpt lat="43.08355023063454" lon="0.07960196828178653"><ele>637.0</ele><time>2026-04-01T10:34:39Z</time></trkpt><trkpt lat="43.08349028673369" lon="0.07981213322022467"><ele>637.0</ele><time>2026-04-01T10:34:40Z</time></trkpt><trkpt lat="43.0834269497717" lon="0.08005427205856558"><ele>637.0</ele><time>2026-04-01T10:34:41Z</time></trkpt><trkpt lat="43.08336836568699" lon="0.08030248865720195"><ele>637.0</ele><time>2026-04-01T10:34:42Z</time></trkpt><trkpt lat="43.083284226876195" lon="0.08055361725919111"><ele>637.0</ele><time>2026-04-01T10:34:43Z</time></trkpt><trkpt lat="43.08320071624426" lon="0.08079621326372634"><ele>630.0</ele><time>2026-04-01T10:34:44Z</time></trkpt><trkpt lat="43.08310340002641" lon="0.08101218631162244"><ele>623.0</ele><time>2026-04-01T10:34:45Z</time></trkpt><trkpt lat="43.08298709483371" lon="0.08119869379832671"><ele>616.0</ele><time>2026-04-01T10:34:46Z</time></trkpt><trkpt lat="43.08288957274646" lon="0.08134701980365985"><ele>616.0</ele><time>2026-04-01T10:34:47Z</time></trkpt><trkpt lat="43.08280188816521" lon="0.08149966410747503"><ele>616.0</ele><time>2026-04-01T10:34:48Z</time></trkpt><trkpt lat="43.08273094129745" lon="0.08169045540998568"><ele>616.0</ele><time>2026-04-01T10:34:49Z</time></trkpt><trkpt lat="43.08267187555771" lon="0.08190010101808673"><ele>616.0</ele><time>2026-04-01T10:34:50Z</time></trkpt><trkpt lat="43.082641099764196" lon="0.0820983147207105"><ele>616.0</ele><time>2026-04-01T10:34:51Z</time></trkpt><trkpt lat="43.082656072218555" lon="0.08229542083010281"><ele>616.0</ele><time>2026-04-01T10:34:52Z</time></trkpt><trkpt lat="43.08270903472435" lon="0.0824931055718489"><ele>616.0</ele><time>2026-04-01T10:34:53Z</time></trkpt><trkpt lat="43.082796303192815" lon="0.08268789034084954"><ele>614.3333333333334</ele><time>2026-04-01T10:34:54Z</time></trkpt><trkpt lat="43.08290994693521" lon="0.0828720004790395"><ele>612.6666666666666</ele><time>2026-04-01T10:34:55Z</time></trkpt><trkpt lat="43.08300170768907" lon="0.0830665129184132"><ele>611.0</ele><time>2026-04-01T10:34:56Z</time></trkpt><trkpt lat="43.08308896520391" lon="0.08323975604108451"><ele>607.0</ele><time>2026-04-01T10:34:57Z</time></trkpt><trkpt lat="43.083079871907806" lon="0.08346609043410307"><ele>603.0</ele><time>2026-04-01T10:34:58Z</time></trkpt><trkpt lat="43.08308311480698" lon="0.0836909418790492"><ele>599.0</ele><time>2026-04-01T10:34:59Z</time></trkpt><trkpt lat="43.08310167343471" lon="0.08387870662667875"><ele>599.0</ele><time>2026-04-01T10:35:00Z</time></trkpt><trkpt lat="43.083119484693384" lon="0.08401706961677752"><ele>599.0</ele><time>2026-04-01T10:35:01Z</time></trkpt><trkpt lat="43.0831637340895" lon="0.0841293278131732"><ele>599.0</ele><time>2026-04-01T10:35:02Z</time></trkpt><trkpt lat="43.083239192113346" lon="0.08421125431336217"><ele>599.0</ele><time>2026-04-01T10:35:03Z</time></trkpt><trkpt lat="43.083337878199046" lon="0.08423785597396115"><ele>599.0</ele><time>2026-04-01T10:35:04Z</time></trkpt><trkpt lat="43.08343557094074" lon="0.08419882589038763"><ele>601.3333333333333</ele><time>2026-04-01T10:35:05Z</time></trkpt><trkpt lat="43.08356014259994" lon="0.08411952185875486"><ele>603.6666666666666</ele><time>2026-04-01T10:35:06Z</time></trkpt><trkpt lat="43.083708235949615" lon="0.08403573799607254"><ele>606.0</ele><time>2026-04-01T10:35:07Z</time></trkpt><trkpt lat="43.08385872842256" lon="0.08393880169394866"><ele>609.3333333333334</ele><time>2026-04-01T10:35:08Z</time></trkpt><trkpt lat="43.083971576621266" lon="0.08385118620418361"><ele>612.6666666666666</ele><time>2026-04-01T10:35:09Z</time></trkpt><trkpt lat="43.08407020075584" lon="0.08383234620139683"><ele>616.0</ele><time>2026-04-01T10:35:10Z</time></trkpt><trkpt lat="43.08415025134708" lon="0.0838236504172069"><ele>619.3333333333333</ele><time>2026-04-01T10:35:11Z</time></trkpt><trkpt lat="43.084212251401674" lon="0.08383988215968628"><ele>622.6666666666666</ele><time>2026-04-01T10:35:12Z</time></trkpt><trkpt lat="43.08424884377833" lon="0.0839271899589117"><ele>626.0</ele><time>2026-04-01T10:35:13Z</time></trkpt><trkpt lat="43.08424042119123" lon="0.08404472616651307"><ele>621.75</ele><time>2026-04-01T10:35:14Z</time></trkpt><trkpt lat="43.08418521672002" lon="0.0841959448713903"><ele>617.5</ele><time>2026-04-01T10:35:15Z</time></trkpt><trkpt lat="43.08413500384864" lon="0.08437039702933193"><ele>613.25</ele><time>2026-04-01T10:35:16Z</time></trkpt><trkpt lat="43.08409860774309" lon="0.08460221133795935"><ele>609.0</ele><time>2026-04-01T10:35:17Z</time></trkpt><trkpt lat="43.08407148955072" lon="0.0848407262408277"><ele>600.6666666666666</ele><time>2026-04-01T10:35:18Z</time></trkpt><trkpt lat="43.08404515402243" lon="0.08509366371796429"><ele>592.3333333333333</ele><time>2026-04-01T10:35:19Z</time></trkpt><trkpt lat="43.08402108037536" lon="0.08533294387444164"><ele>584.0</ele><time>2026-04-01T10:35:20Z</time></trkpt><trkpt lat="43.08399741264521" lon="0.08556213197325005"><ele>578.75</ele><time>2026-04-01T10:35:21Z</time></trkpt><trkpt lat="43.083980575479046" lon="0.08578109728538162"><ele>573.5</ele><time>2026-04-01T10:35:22Z</time></trkpt><trkpt lat="43.08396474187628" lon="0.08596410945091344"><ele>568.25</ele><time>2026-04-01T10:35:23Z</time></trkpt><trkpt lat="43.08395033727814" lon="0.08609810708219559"><ele>563.0</ele><time>2026-04-01T10:35:24Z</time></trkpt><trkpt lat="43.08395449685911" lon="0.08621471049926245"><ele>563.0</ele><time>2026-04-01T10:35:25Z</time></trkpt><trkpt lat="43.08397445325726" lon="0.086336785470384"><ele>563.0</ele><time>2026-04-01T10:35:26Z</time></trkpt><trkpt lat="43.084061059593346" lon="0.08645195732121856"><ele>563.0</ele><time>2026-04-01T10:35:27Z</time></trkpt><trkpt lat="43.08418715211734" lon="0.08653134230261629"><ele>563.0</ele><time>2026-04-01T10:35:28Z</time></trkpt><trkpt lat="43.0842987283584" lon="0.08667807515598673"><ele>568.3333333333333</ele><time>2026-04-01T10:35:29Z</time></trkpt><trkpt lat="43.08441356648594" lon="0.08681098423743969"><ele>573.6666666666666</ele><time>2026-04-01T10:35:30Z</time></trkpt><trkpt lat="43.08455156413025" lon="0.08691312063005087"><ele>579.0</ele><time>2026-04-01T10:35:31Z</time></trkpt><trkpt lat="43.0846975598885" lon="0.08699822365430401"><ele>579.0</ele><time>2026-04-01T10:35:32Z</time></trkpt><trkpt lat="43.084870752659384" lon="0.08702847497706126"><ele>579.0</ele><time>2026-04-01T10:35:33Z</time></trkpt><trkpt lat="43.08506276241674" lon="0.08703789971692626"><ele>579.0</ele><time>2026-04-01T10:35:34Z</time></trkpt><trkpt lat="43.0852544327178" lon="0.08711124047758124"><ele>584.6666666666666</ele><time>2026-04-01T10:35:35Z</time></trkpt><trkpt lat="43.085439074648875" lon="0.08719943379517676"><ele>590.3333333333333</ele><time>2026-04-01T10:35:36Z</time></trkpt><trkpt lat="43.08561179664681" lon="0.08729114192609262"><ele>596.0</ele><time>2026-04-01T10:35:37Z</time></trkpt><trkpt lat="43.08575898304338" lon="0.08741807830937187"><ele>586.6666666666666</ele><time>2026-04-01T10:35:38Z</time></trkpt><trkpt lat="43.085898707811715" lon="0.08750678702603058"><ele>577.3333333333334</ele><time>2026-04-01T10:35:39Z</time></trkpt><trkpt lat="43.086051667759264" lon="0.08755113397628488"><ele>568.0</ele><time>2026-04-01T10:35:40Z</time></trkpt><trkpt lat="43.08617654985534" lon="0.08764844497308281"><ele>568.0</ele><time>2026-04-01T10:35:41Z</time></trkpt><trkpt lat="43.08630143162387" lon="0.08782855978504094"><ele>568.0</ele><time>2026-04-01T10:35:42Z</time></trkpt><trkpt lat="43.08647161643874" lon="0.08798706227829516"><ele>568.0</ele><time>2026-04-01T10:35:43Z</time></trkpt><trkpt lat="43.086632206775526" lon="0.08819211844987805"><ele>567.0</ele><time>2026-04-01T10:35:44Z</time></trkpt><trkpt lat="43.08676849119072" lon="0.08841216637733962"><ele>566.0</ele><time>2026-04-01T10:35:45Z</time></trkpt><trkpt lat="43.08689357997937" lon="0.08862792919983643"><ele>565.0</ele><time>2026-04-01T10:35:46Z</time></trkpt><trkpt lat="43.08699058652681" lon="0.08883269908079512"><ele>565.0</ele><time>2026-04-01T10:35:47Z</time></trkpt><trkpt lat="43.08707175134596" lon="0.08903105135785985"><ele>565.0</ele><time>2026-04-01T10:35:48Z</time></trkpt><trkpt lat="43.087144451508856" lon="0.08921593232061367"><ele>565.0</ele><time>2026-04-01T10:35:49Z</time></trkpt><trkpt lat="43.08717894565039" lon="0.08940971249642596"><ele>555.6666666666667</ele><time>2026-04-01T10:35:50Z</time></trkpt><trkpt lat="43.08717063727138" lon="0.08962041261904814"><ele>546.3333333333334</ele><time>2026-04-01T10:35:51Z</time></trkpt><trkpt lat="43.08717212323736" lon="0.08987661224591714"><ele>537.0</ele><time>2026-04-01T10:35:52Z</time></trkpt><trkpt lat="43.08719388594104" lon="0.09016516083959877"><ele>533.0</ele><time>2026-04-01T10:35:53Z</time></trkpt><trkpt lat="43.087244962213475" lon="0.09043937095927021"><ele>529.0</ele><time>2026-04-01T10:35:54Z</time></trkpt><trkpt lat="43.08726042564769" lon="0.09067521142865402"><ele>525.0</ele><time>2026-04-01T10:35:55Z</time></trkpt><trkpt lat="43.08727837636524" lon="0.09088122598621678"><ele>524.8</ele><time>2026-04-01T10:35:56Z</time></trkpt><trkpt lat="43.0872757110134" lon="0.09106732780184656"><ele>524.6</ele><time>2026-04-01T10:35:57Z</time></trkpt><trkpt lat="43.08728615033067" lon="0.0912175205321409"><ele>524.4</ele><time>2026-04-01T10:35:58Z</time></trkpt><trkpt lat="43.08730057257562" lon="0.0913505011798789"><ele>524.2</ele><time>2026-04-01T10:35:59Z</time></trkpt><trkpt lat="43.08736397373027" lon="0.09146522956828797"><ele>524.0</ele><time>2026-04-01T10:36:00Z</time></trkpt><trkpt lat="43.08747800202475" lon="0.09156180166850715"><ele>526.0</ele><time>2026-04-01T10:36:01Z</time></trkpt><trkpt lat="43.08760494696349" lon="0.09170860658686418"><ele>528.0</ele><time>2026-04-01T10:36:02Z</time></trkpt><trkpt lat="43.08771393792712" lon="0.09184944363169187"><ele>530.0</ele><time>2026-04-01T10:36:03Z</time></trkpt><trkpt lat="43.0877972473514" lon="0.09198169705330744"><ele>532.0</ele><time>2026-04-01T10:36:04Z</time></trkpt><trkpt lat="43.08786682539916" lon="0.09209842213823646"><ele>532.0</ele><time>2026-04-01T10:36:05Z</time></trkpt><trkpt lat="43.0879125108064" lon="0.09222573277349773"><ele>532.0</ele><time>2026-04-01T10:36:06Z</time></trkpt><trkpt lat="43.08788985374605" lon="0.09237887883650227"><ele>532.0</ele><time>2026-04-01T10:36:07Z</time></trkpt><trkpt lat="43.08794847048579" lon="0.09259758070166535"><ele>532.0</ele><time>2026-04-01T10:36:08Z</time></trkpt><trkpt lat="43.08796042678459" lon="0.09282252630277638"><ele>529.3333333333334</ele><time>2026-04-01T10:36:09Z</time></trkpt><trkpt lat="43.08798331918198" lon="0.09305688371562072"><ele>526.6666666666666</ele><time>2026-04-01T10:36:10Z</time></trkpt><trkpt lat="43.08799566561109" lon="0.09330328820880454"><ele>524.0</ele><time>2026-04-01T10:36:11Z</time></trkpt><trkpt lat="43.08800598591158" lon="0.09354588931061467"><ele>524.0</ele><time>2026-04-01T10:36:12Z</time></trkpt><trkpt lat="43.08801131939693" lon="0.09377751675954991"><ele>524.0</ele><time>2026-04-01T10:36:13Z</time></trkpt><trkpt lat="43.08806440185435" lon="0.09399780563607767"><ele>524.0</ele><time>2026-04-01T10:36:14Z</time></trkpt><trkpt lat="43.08815674301509" lon="0.09420537841373744"><ele>523.6666666666666</ele><time>2026-04-01T10:36:15Z</time></trkpt><trkpt lat="43.08825300146831" lon="0.09442456638227523"><ele>523.3333333333334</ele><time>2026-04-01T10:36:16Z</time></trkpt><trkpt lat="43.088332670533624" lon="0.09466201379563834"><ele>523.0</ele><time>2026-04-01T10:36:17Z</time></trkpt><trkpt lat="43.08841052327499" lon="0.094890107047559"><ele>527.0</ele><time>2026-04-01T10:36:18Z</time></trkpt><trkpt lat="43.08845525756734" lon="0.0951204176939001"><ele>531.0</ele><time>2026-04-01T10:36:19Z</time></trkpt><trkpt lat="43.08848676352224" lon="0.09537336385491663"><ele>535.0</ele><time>2026-04-01T10:36:20Z</time></trkpt><trkpt lat="43.08852084153598" lon="0.09566189152823937"><ele>537.6666666666667</ele><time>2026-04-01T10:36:21Z</time></trkpt><trkpt lat="43.08859216570221" lon="0.09594464540962126"><ele>540.3333333333334</ele><time>2026-04-01T10:36:22Z</time></trkpt><trkpt lat="43.08865246951247" lon="0.09623752989051051"><ele>543.0</ele><time>2026-04-01T10:36:23Z</time></trkpt><trkpt lat="43.08873322258484" lon="0.09651022271777657"><ele>546.0</ele><time>2026-04-01T10:36:24Z</time></trkpt><trkpt lat="43.088811907868156" lon="0.09675102855641775"><ele>549.0</ele><time>2026-04-01T10:36:25Z</time></trkpt><trkpt lat="43.08891222859445" lon="0.09697435828720603"><ele>552.0</ele><time>2026-04-01T10:36:26Z</time></trkpt><trkpt lat="43.08899071559216" lon="0.0972050070274749"><ele>550.6666666666666</ele><time>2026-04-01T10:36:27Z</time></trkpt><trkpt lat="43.08906727073759" lon="0.0974461383984202"><ele>549.3333333333333</ele><time>2026-04-01T10:36:28Z</time></trkpt><trkpt lat="43.08908990419967" lon="0.09768613154930132"><ele>548.0</ele><time>2026-04-01T10:36:29Z</time></trkpt><trkpt lat="43.08909190527745" lon="0.09792998450143016"><ele>548.0</ele><time>2026-04-01T10:36:30Z</time></trkpt><trkpt lat="43.08908830923878" lon="0.09819793393380737"><ele>548.0</ele><time>2026-04-01T10:36:31.001Z</time></trkpt><trkpt lat="43.089086093187" lon="0.09848755458522974"><ele>548.0</ele><time>2026-04-01T10:36:32Z</time></trkpt><trkpt lat="43.08908978954799" lon="0.09878941990078009"><ele>537.6666666666666</ele><time>2026-04-01T10:36:33Z</time></trkpt><trkpt lat="43.08909890016005" lon="0.09908252786985162"><ele>527.3333333333334</ele><time>2026-04-01T10:36:34Z</time></trkpt><trkpt lat="43.08910668160572" lon="0.09938254673151566"><ele>517.0</ele><time>2026-04-01T10:36:35Z</time></trkpt><trkpt lat="43.0891094952714" lon="0.09969579532912241"><ele>526.6666666666667</ele><time>2026-04-01T10:36:36Z</time></trkpt><trkpt lat="43.0890834890763" lon="0.10000227296804405"><ele>536.3333333333334</ele><time>2026-04-01T10:36:37Z</time></trkpt><trkpt lat="43.0890861265516" lon="0.10030061864438332"><ele>546.0</ele><time>2026-04-01T10:36:38Z</time></trkpt><trkpt lat="43.08905420852666" lon="0.10059089380383199"><ele>540.6666666666666</ele><time>2026-04-01T10:36:39Z</time></trkpt><trkpt lat="43.08904414992806" lon="0.1008659741845893"><ele>535.3333333333333</ele><time>2026-04-01T10:36:40Z</time></trkpt><trkpt lat="43.089049432917705" lon="0.10112841953066182"><ele>530.0</ele><time>2026-04-01T10:36:41Z</time></trkpt><trkpt lat="43.089054448827554" lon="0.1013620036009368"><ele>530.0</ele><time>2026-04-01T10:36:42Z</time></trkpt><trkpt lat="43.089037979489476" lon="0.10157763111027991"><ele>530.0</ele><time>2026-04-01T10:36:43Z</time></trkpt><trkpt lat="43.088970456077014" lon="0.10176720608066045"><ele>530.0</ele><time>2026-04-01T10:36:44Z</time></trkpt><trkpt lat="43.088895699533204" lon="0.10194775569240566"><ele>528.75</ele><time>2026-04-01T10:36:45Z</time></trkpt><trkpt lat="43.08884211891559" lon="0.10213475100648531"><ele>527.5</ele><time>2026-04-01T10:36:46Z</time></trkpt><trkpt lat="43.08880238925945" lon="0.10229918400805427"><ele>526.25</ele><time>2026-04-01T10:36:47Z</time></trkpt><trkpt lat="43.08881151183323" lon="0.10246201617324699"><ele>525.0</ele><time>2026-04-01T10:36:48Z</time></trkpt><trkpt lat="43.08885932655385" lon="0.10262012666020459"><ele>520.0</ele><time>2026-04-01T10:36:49Z</time></trkpt><trkpt lat="43.08893838761036" lon="0.10277817991994685"><ele>515.0</ele><time>2026-04-01T10:36:50Z</time></trkpt><trkpt lat="43.08903902164223" lon="0.1029396624190272"><ele>510.0</ele><time>2026-04-01T10:36:51Z</time></trkpt><trkpt lat="43.08915185568971" lon="0.1031138646275732"><ele>513.0</ele><time>2026-04-01T10:36:52Z</time></trkpt><trkpt lat="43.089260715907024" lon="0.10333704361571933"><ele>516.0</ele><time>2026-04-01T10:36:53Z</time></trkpt><trkpt lat="43.0893878703093" lon="0.10353665721716623"><ele>519.0</ele><time>2026-04-01T10:36:54Z</time></trkpt><trkpt lat="43.08948325784196" lon="0.10372684376349652"><ele>519.0</ele><time>2026-04-01T10:36:55Z</time></trkpt><trkpt lat="43.089579721019845" lon="0.10389956264146111"><ele>519.0</ele><time>2026-04-01T10:36:56Z</time></trkpt><trkpt lat="43.08965634207897" lon="0.10405760851543654"><ele>519.0</ele><time>2026-04-01T10:36:57Z</time></trkpt><trkpt lat="43.08969849566958" lon="0.10420439275218706"><ele>519.0</ele><time>2026-04-01T10:36:58Z</time></trkpt><trkpt lat="43.08967329561952" lon="0.1043651727889238"><ele>522.6666666666666</ele><time>2026-04-01T10:36:59Z</time></trkpt><trkpt lat="43.08964003779374" lon="0.10453620068550962"><ele>526.3333333333333</ele><time>2026-04-01T10:37:00Z</time></trkpt><trkpt lat="43.08958978653136" lon="0.10473782105927483"><ele>530.0</ele><time>2026-04-01T10:37:01Z</time></trkpt><trkpt lat="43.089546105476686" lon="0.1049825631981807"><ele>531.3333333333333</ele><time>2026-04-01T10:37:02Z</time></trkpt><trkpt lat="43.08948027119702" lon="0.10524495822115304"><ele>532.6666666666666</ele><time>2026-04-01T10:37:03Z</time></trkpt><trkpt lat="43.08943453820532" lon="0.10551653536166954"><ele>534.0</ele><time>2026-04-01T10:37:04Z</time></trkpt><trkpt lat="43.089413039236" lon="0.10578164516333227"><ele>534.0</ele><time>2026-04-01T10:37:05Z</time></trkpt><trkpt lat="43.08940593993028" lon="0.10604877577961065"><ele>534.0</ele><time>2026-04-01T10:37:06Z</time></trkpt><trkpt lat="43.08941045724502" lon="0.10632371643837842"><ele>534.0</ele><time>2026-04-01T10:37:07Z</time></trkpt><trkpt lat="43.089434412155185" lon="0.10660413947575394"><ele>529.3333333333334</ele><time>2026-04-01T10:37:08Z</time></trkpt><trkpt lat="43.089477531622876" lon="0.10687142094665761"><ele>524.6666666666667</ele><time>2026-04-01T10:37:09Z</time></trkpt><trkpt lat="43.089535202225946" lon="0.10715079004333954"><ele>520.0</ele><time>2026-04-01T10:37:10Z</time></trkpt><trkpt lat="43.0895877440965" lon="0.10743103790542925"><ele>519.6666666666667</ele><time>2026-04-01T10:37:11Z</time></trkpt><trkpt lat="43.089632346234055" lon="0.10771782879141932"><ele>519.3333333333334</ele><time>2026-04-01T10:37:12Z</time></trkpt><trkpt lat="43.08967202118232" lon="0.10801272881666646"><ele>519.0</ele><time>2026-04-01T10:37:13Z</time></trkpt><trkpt lat="43.08971989444602" lon="0.10830316951406527"><ele>519.0</ele><time>2026-04-01T10:37:14Z</time></trkpt><trkpt lat="43.08976642823399" lon="0.10858008573599402"><ele>519.0</ele><time>2026-04-01T10:37:15Z</time></trkpt><trkpt lat="43.08980775203849" lon="0.10883744319516969"><ele>519.0</ele><time>2026-04-01T10:37:16Z</time></trkpt><trkpt lat="43.08985573370857" lon="0.10911359131303684"><ele>526.5</ele><time>2026-04-01T10:37:17Z</time></trkpt><trkpt lat="43.08990080448326" lon="0.10942238401588524"><ele>534.0</ele><time>2026-04-01T10:37:18Z</time></trkpt><trkpt lat="43.089938185026334" lon="0.1097420570858986"><ele>526.0</ele><time>2026-04-01T10:37:19Z</time></trkpt><trkpt lat="43.089963174467904" lon="0.11002458218059201"><ele>518.0</ele><time>2026-04-01T10:37:20Z</time></trkpt><trkpt lat="43.089993120233665" lon="0.11032041672237215"><ele>510.0</ele><time>2026-04-01T10:37:21Z</time></trkpt><trkpt lat="43.09003929430347" lon="0.11063345566034626"><ele>512.3333333333334</ele><time>2026-04-01T10:37:22Z</time></trkpt><trkpt lat="43.09009703996055" lon="0.1109178757539118"><ele>514.6666666666667</ele><time>2026-04-01T10:37:23Z</time></trkpt><trkpt lat="43.09014895207468" lon="0.11118596338326245"><ele>517.0</ele><time>2026-04-01T10:37:24Z</time></trkpt><trkpt lat="43.09019055136608" lon="0.11143440397577889"><ele>516.6666666666667</ele><time>2026-04-01T10:37:25Z</time></trkpt><trkpt lat="43.090239453455226" lon="0.1116584996201756"><ele>516.3333333333334</ele><time>2026-04-01T10:37:26Z</time></trkpt><trkpt lat="43.09029420129838" lon="0.11188190633974403"><ele>516.0</ele><time>2026-04-01T10:37:27Z</time></trkpt><trkpt lat="43.09037756523016" lon="0.11209737122896554"><ele>516.0</ele><time>2026-04-01T10:37:28Z</time></trkpt><trkpt lat="43.090495441045306" lon="0.11231259873052286"><ele>516.0</ele><time>2026-04-01T10:37:29Z</time></trkpt><trkpt lat="43.090639528702475" lon="0.11254202235263662"><ele>516.0</ele><time>2026-04-01T10:37:30Z</time></trkpt><trkpt lat="43.09080048086965" lon="0.11279095106480974"><ele>513.0</ele><time>2026-04-01T10:37:31Z</time></trkpt><trkpt lat="43.090954504259884" lon="0.11306719539520271"><ele>510.0</ele><time>2026-04-01T10:37:32Z</time></trkpt><trkpt lat="43.09109675488565" lon="0.11335573638514065"><ele>510.0</ele><time>2026-04-01T10:37:33Z</time></trkpt><trkpt lat="43.091215816950466" lon="0.11368355736771553"><ele>510.0</ele><time>2026-04-01T10:37:34Z</time></trkpt><trkpt lat="43.0913597523991" lon="0.11398203150676421"><ele>504.0</ele><time>2026-04-01T10:37:35Z</time></trkpt><trkpt lat="43.09149093577699" lon="0.11428372783062936"><ele>498.0</ele><time>2026-04-01T10:37:36Z</time></trkpt><trkpt lat="43.09162335295903" lon="0.11456838254078226"><ele>498.0</ele><time>2026-04-01T10:37:37.001Z</time></trkpt><trkpt lat="43.09174994393572" lon="0.11482842532157592"><ele>498.0</ele><time>2026-04-01T10:37:38Z</time></trkpt><trkpt lat="43.09187317530902" lon="0.1150690629534157"><ele>498.0</ele><time>2026-04-01T10:37:39.001Z</time></trkpt><trkpt lat="43.09198269742221" lon="0.11527961722263948"><ele>504.33333333333337</ele><time>2026-04-01T10:37:40Z</time></trkpt><trkpt lat="43.09209817478856" lon="0.11550146905308874"><ele>510.6666666666667</ele><time>2026-04-01T10:37:41Z</time></trkpt><trkpt lat="43.092211086327026" lon="0.11573083062325071"><ele>517.0</ele><time>2026-04-01T10:37:42Z</time></trkpt><trkpt lat="43.09231456931082" lon="0.11593304924678853"><ele>514.3333333333334</ele><time>2026-04-01T10:37:43Z</time></trkpt><trkpt lat="43.09240925505167" lon="0.11614223665889337"><ele>511.66666666666663</ele><time>2026-04-01T10:37:44Z</time></trkpt><trkpt lat="43.09246954373548" lon="0.116400548939432"><ele>509.0</ele><time>2026-04-01T10:37:45.001Z</time></trkpt><trkpt lat="43.09253201263211" lon="0.11667352733750526"><ele>509.0</ele><time>2026-04-01T10:37:46.001Z</time></trkpt><trkpt lat="43.092588583853725" lon="0.11692749734482494"><ele>509.0</ele><time>2026-04-01T10:37:47Z</time></trkpt><trkpt lat="43.09265462468126" lon="0.1171442185537505"><ele>509.0</ele><time>2026-04-01T10:37:48.001Z</time></trkpt><trkpt lat="43.09269851915897" lon="0.11738651569228663"><ele>510.66666666666663</ele><time>2026-04-01T10:37:49.001Z</time></trkpt><trkpt lat="43.092777816419996" lon="0.11764000445527584"><ele>512.3333333333334</ele><time>2026-04-01T10:37:50.001Z</time></trkpt><trkpt lat="43.09283998232288" lon="0.11791415452319395"><ele>514.0</ele><time>2026-04-01T10:37:51Z</time></trkpt><trkpt lat="43.09291149178433" lon="0.11820854363595378"><ele>513.6666666666667</ele><time>2026-04-01T10:37:52.001Z</time></trkpt><trkpt lat="43.09297401686287" lon="0.11848923338654362"><ele>513.3333333333334</ele><time>2026-04-01T10:37:53Z</time></trkpt><trkpt lat="43.093038688387615" lon="0.1187739464071265"><ele>513.0</ele><time>2026-04-01T10:37:54Z</time></trkpt><trkpt lat="43.093109406466695" lon="0.11905009562363322"><ele>513.3333333333334</ele><time>2026-04-01T10:37:55Z</time></trkpt><trkpt lat="43.09317813592854" lon="0.11934728579045283"><ele>513.6666666666667</ele><time>2026-04-01T10:37:56Z</time></trkpt><trkpt lat="43.0932366005459" lon="0.11963839114644756"><ele>514.0</ele><time>2026-04-01T10:37:57Z</time></trkpt><trkpt lat="43.093288399686166" lon="0.11992222303177119"><ele>513.3333333333334</ele><time>2026-04-01T10:37:58Z</time></trkpt><trkpt lat="43.0933435309006" lon="0.1202034272716592"><ele>512.6666666666666</ele><time>2026-04-01T10:37:59Z</time></trkpt><trkpt lat="43.09340117037214" lon="0.12047674017098589"><ele>512.0</ele><time>2026-04-01T10:38:00Z</time></trkpt><trkpt lat="43.09345315306835" lon="0.12073674691044309"><ele>511.3333333333333</ele><time>2026-04-01T10:38:01Z</time></trkpt><trkpt lat="43.09349371682369" lon="0.12097718781236678"><ele>510.66666666666663</ele><time>2026-04-01T10:38:02Z</time></trkpt><trkpt lat="43.09354335457053" lon="0.12121880191126273"><ele>510.0</ele><time>2026-04-01T10:38:03Z</time></trkpt><trkpt lat="43.093591880558066" lon="0.12146107307958738"><ele>510.0</ele><time>2026-04-01T10:38:04Z</time></trkpt><trkpt lat="43.093641491486444" lon="0.12169910446411056"><ele>510.0</ele><time>2026-04-01T10:38:05Z</time></trkpt><trkpt lat="43.09368049803493" lon="0.12189453990125347"><ele>510.0</ele><time>2026-04-01T10:38:06Z</time></trkpt><trkpt lat="43.09370663283331" lon="0.12206607062043928"><ele>510.0</ele><time>2026-04-01T10:38:07Z</time></trkpt><trkpt lat="43.09371648747395" lon="0.12223308905155818"><ele>510.0</ele><time>2026-04-01T10:38:08Z</time></trkpt><trkpt lat="43.09367404466802" lon="0.1224054374547816"><ele>510.0</ele><time>2026-04-01T10:38:09Z</time></trkpt><trkpt lat="43.093620180428175" lon="0.12259831268580293"><ele>510.0</ele><time>2026-04-01T10:38:10Z</time></trkpt><trkpt lat="43.09353540017165" lon="0.12281738373722088"><ele>509.33333333333337</ele><time>2026-04-01T10:38:11Z</time></trkpt><trkpt lat="43.09343045971557" lon="0.12303608198379469"><ele>508.6666666666667</ele><time>2026-04-01T10:38:12Z</time></trkpt><trkpt lat="43.093312720729784" lon="0.12326003634868306"><ele>508.0</ele><time>2026-04-01T10:38:13Z</time></trkpt><trkpt lat="43.09318994844905" lon="0.12351017373439202"><ele>511.5</ele><time>2026-04-01T10:38:14Z</time></trkpt><trkpt lat="43.093049409490405" lon="0.12375770783828614"><ele>515.0</ele><time>2026-04-01T10:38:15Z</time></trkpt><trkpt lat="43.09291071191406" lon="0.12401576802543424"><ele>511.5</ele><time>2026-04-01T10:38:16Z</time></trkpt><trkpt lat="43.092761700420965" lon="0.12427980839743809"><ele>508.0</ele><time>2026-04-01T10:38:17Z</time></trkpt><trkpt lat="43.09262712318082" lon="0.12452271878645581"><ele>508.0</ele><time>2026-04-01T10:38:18Z</time></trkpt><trkpt lat="43.0925134041608" lon="0.12474918270349876"><ele>508.0</ele><time>2026-04-01T10:38:19Z</time></trkpt><trkpt lat="43.092405984326085" lon="0.12494071440672255"><ele>508.0</ele><time>2026-04-01T10:38:20Z</time></trkpt><trkpt lat="43.09230892580764" lon="0.12509822203737006"><ele>508.5</ele><time>2026-04-01T10:38:21Z</time></trkpt><trkpt lat="43.09221231480196" lon="0.1252266244874946"><ele>509.0</ele><time>2026-04-01T10:38:22Z</time></trkpt><trkpt lat="43.09210157304591" lon="0.12527084090003257"><ele>509.5</ele><time>2026-04-01T10:38:23Z</time></trkpt><trkpt lat="43.09197766600251" lon="0.12528450673055921"><ele>510.0</ele><time>2026-04-01T10:38:24Z</time></trkpt><trkpt lat="43.091820340514154" lon="0.12528111581360313"><ele>510.0</ele><time>2026-04-01T10:38:25Z</time></trkpt><trkpt lat="43.09164560796493" lon="0.1252975921605966"><ele>510.0</ele><time>2026-04-01T10:38:26Z</time></trkpt><trkpt lat="43.091461773548595" lon="0.12533006228633425"><ele>510.0</ele><time>2026-04-01T10:38:27Z</time></trkpt><trkpt lat="43.091285396137515" lon="0.12540784662048884"><ele>516.3333333333334</ele><time>2026-04-01T10:38:28Z</time></trkpt><trkpt lat="43.091115823943646" lon="0.12551289193200102"><ele>522.6666666666667</ele><time>2026-04-01T10:38:29Z</time></trkpt><trkpt lat="43.09093841747888" lon="0.12565630561514973"><ele>529.0</ele><time>2026-04-01T10:38:30Z</time></trkpt><trkpt lat="43.09075286692986" lon="0.12581896076332488"><ele>529.3333333333334</ele><time>2026-04-01T10:38:31Z</time></trkpt><trkpt lat="43.090566373097445" lon="0.1259667497822588"><ele>529.6666666666666</ele><time>2026-04-01T10:38:32Z</time></trkpt><trkpt lat="43.090387207207236" lon="0.12609752447887534"><ele>530.0</ele><time>2026-04-01T10:38:33Z</time></trkpt><trkpt lat="43.09020959382547" lon="0.12623081505137193"><ele>530.0</ele><time>2026-04-01T10:38:34Z</time></trkpt><trkpt lat="43.090045209945664" lon="0.12638469468665667"><ele>530.0</ele><time>2026-04-01T10:38:35Z</time></trkpt><trkpt lat="43.08989841201992" lon="0.1265764546346524"><ele>530.0</ele><time>2026-04-01T10:38:36Z</time></trkpt><trkpt lat="43.089749719264084" lon="0.12678667251081668"><ele>529.6666666666666</ele><time>2026-04-01T10:38:37Z</time></trkpt><trkpt lat="43.08960441839274" lon="0.12698540608896838"><ele>529.3333333333334</ele><time>2026-04-01T10:38:38Z</time></trkpt><trkpt lat="43.089454954264525" lon="0.12718090722709846"><ele>529.0</ele><time>2026-04-01T10:38:39Z</time></trkpt><trkpt lat="43.089308050426084" lon="0.1273737143142457"><ele>527.6666666666667</ele><time>2026-04-01T10:38:40Z</time></trkpt><trkpt lat="43.08916742984263" lon="0.12756791006106788"><ele>526.3333333333334</ele><time>2026-04-01T10:38:41Z</time></trkpt><trkpt lat="43.08903549616364" lon="0.12776112815031812"><ele>525.0</ele><time>2026-04-01T10:38:42Z</time></trkpt><trkpt lat="43.088904739104834" lon="0.12795282313427964"><ele>525.0</ele><time>2026-04-01T10:38:43Z</time></trkpt><trkpt lat="43.088782397892786" lon="0.12812959758915202"><ele>525.0</ele><time>2026-04-01T10:38:44Z</time></trkpt><trkpt lat="43.08868005115223" lon="0.1283060513175634"><ele>525.0</ele><time>2026-04-01T10:38:45Z</time></trkpt><trkpt lat="43.088599474569655" lon="0.12852302313279204"><ele>521.6666666666666</ele><time>2026-04-01T10:38:46Z</time></trkpt><trkpt lat="43.088539197942765" lon="0.12877255652248304"><ele>518.3333333333333</ele><time>2026-04-01T10:38:47Z</time></trkpt><trkpt lat="43.088477648081465" lon="0.1290146759013814"><ele>515.0</ele><time>2026-04-01T10:38:48Z</time></trkpt><trkpt lat="43.088405544092566" lon="0.12923373451591177"><ele>512.3333333333333</ele><time>2026-04-01T10:38:49Z</time></trkpt><trkpt lat="43.088314638981984" lon="0.1294250570021316"><ele>509.66666666666663</ele><time>2026-04-01T10:38:50Z</time></trkpt><trkpt lat="43.08821605906494" lon="0.1295799173468327"><ele>507.0</ele><time>2026-04-01T10:38:51Z</time></trkpt><trkpt lat="43.08809468815231" lon="0.12971941695192807"><ele>513.0</ele><time>2026-04-01T10:38:52Z</time></trkpt><trkpt lat="43.0879599282065" lon="0.12985040353625743"><ele>519.0</ele><time>2026-04-01T10:38:53Z</time></trkpt><trkpt lat="43.08784718961319" lon="0.12999319209480184"><ele>525.0</ele><time>2026-04-01T10:38:54Z</time></trkpt><trkpt lat="43.087739686514034" lon="0.13011472093890641"><ele>525.0</ele><time>2026-04-01T10:38:55Z</time></trkpt><trkpt lat="43.08766180852682" lon="0.13025434514846823"><ele>525.0</ele><time>2026-04-01T10:38:56Z</time></trkpt><trkpt lat="43.087623081304805" lon="0.13041705602482864"><ele>525.0</ele><time>2026-04-01T10:38:57Z</time></trkpt><trkpt lat="43.08760912366201" lon="0.1306064321585457"><ele>525.0</ele><time>2026-04-01T10:38:58Z</time></trkpt><trkpt lat="43.08759604236994" lon="0.13084242257364553"><ele>519.6666666666666</ele><time>2026-04-01T10:38:59Z</time></trkpt><trkpt lat="43.08757005648839" lon="0.13110541785961408"><ele>514.3333333333333</ele><time>2026-04-01T10:39:00Z</time></trkpt><trkpt lat="43.0875237818131" lon="0.1313679432479449"><ele>509.0</ele><time>2026-04-01T10:39:01Z</time></trkpt><trkpt lat="43.08749316214037" lon="0.1315910514028187"><ele>508.5</ele><time>2026-04-01T10:39:02Z</time></trkpt><trkpt lat="43.087454359818764" lon="0.1317944880021469"><ele>508.0</ele><time>2026-04-01T10:39:03Z</time></trkpt><trkpt lat="43.08741247653731" lon="0.13198628018839814"><ele>507.5</ele><time>2026-04-01T10:39:04Z</time></trkpt><trkpt lat="43.08733430179428" lon="0.13214261774593536"><ele>507.0</ele><time>2026-04-01T10:39:05Z</time></trkpt><trkpt lat="43.08724597692676" lon="0.13228551734400304"><ele>506.5</ele><time>2026-04-01T10:39:06Z</time></trkpt><trkpt lat="43.08714132877886" lon="0.13243263555501508"><ele>506.0</ele><time>2026-04-01T10:39:07Z</time></trkpt><trkpt lat="43.08704995843701" lon="0.13258386453909238"><ele>505.5</ele><time>2026-04-01T10:39:08Z</time></trkpt><trkpt lat="43.08696482720931" lon="0.13268943447762452"><ele>505.0</ele><time>2026-04-01T10:39:09Z</time></trkpt><trkpt lat="43.08689211605051" lon="0.1327735845718291"><ele>505.00000000000006</ele><time>2026-04-01T10:39:10Z</time></trkpt><trkpt lat="43.08683142189766" lon="0.13284879119186332"><ele>505.0</ele><time>2026-04-01T10:39:11Z</time></trkpt><trkpt lat="43.086772185058834" lon="0.13290293171672807"><ele>505.0</ele><time>2026-04-01T10:39:12Z</time></trkpt><trkpt lat="43.08672338256749" lon="0.13295818611265264"><ele>505.0</ele><time>2026-04-01T10:39:13Z</time></trkpt><trkpt lat="43.086640533465456" lon="0.13305512780399054"><ele>505.00000000000006</ele><time>2026-04-01T10:39:15Z</time></trkpt><trkpt lat="43.08656068177408" lon="0.13315180710496094"><ele>505.0</ele><time>2026-04-01T10:39:17Z</time></trkpt><trkpt lat="43.08651405526538" lon="0.13322088317810302"><ele>505.1666666666667</ele><time>2026-04-01T10:39:18Z</time></trkpt><trkpt lat="43.08646751059776" lon="0.13330404050480413"><ele>505.33333333333337</ele><time>2026-04-01T10:39:19Z</time></trkpt><trkpt lat="43.08642300770477" lon="0.13338839505049085"><ele>505.5</ele><time>2026-04-01T10:39:20Z</time></trkpt><trkpt lat="43.086381231804644" lon="0.13348342528791862"><ele>505.66666666666663</ele><time>2026-04-01T10:39:21Z</time></trkpt><trkpt lat="43.08633781694861" lon="0.1336052700804557"><ele>505.8333333333333</ele><time>2026-04-01T10:39:22Z</time></trkpt><trkpt lat="43.08630882662118" lon="0.13373261133964612"><ele>506.0</ele><time>2026-04-01T10:39:23Z</time></trkpt><trkpt lat="43.0862975037064" lon="0.1338686683165929"><ele>506.0</ele><time>2026-04-01T10:39:24Z</time></trkpt><trkpt lat="43.08630024750996" lon="0.13401253379365294"><ele>506.0</ele><time>2026-04-01T10:39:25Z</time></trkpt><trkpt lat="43.0863161610156" lon="0.13414867188066978"><ele>506.0</ele><time>2026-04-01T10:39:26Z</time></trkpt><trkpt lat="43.086340554207155" lon="0.13428511318678304"><ele>506.0</ele><time>2026-04-01T10:39:27Z</time></trkpt><trkpt lat="43.08636345250909" lon="0.13437393866815497"><ele>506.0</ele><time>2026-04-01T10:39:28Z</time></trkpt><trkpt lat="43.086386946927384" lon="0.1344787805281053"><ele>506.20000000000005</ele><time>2026-04-01T10:39:36Z</time></trkpt><trkpt lat="43.08641751330366" lon="0.1345624115027404"><ele>506.40000000000003</ele><time>2026-04-01T10:39:37Z</time></trkpt><trkpt lat="43.08645467093789" lon="0.13464465964974834"><ele>506.6</ele><time>2026-04-01T10:39:38Z</time></trkpt><trkpt lat="43.08649485935067" lon="0.13477780197453793"><ele>506.8</ele><time>2026-04-01T10:39:39Z</time></trkpt><trkpt lat="43.086537906890385" lon="0.13492589747936212"><ele>507.0</ele><time>2026-04-01T10:39:40Z</time></trkpt><trkpt lat="43.08659283104307" lon="0.13504486515586167"><ele>506.8</ele><time>2026-04-01T10:39:41Z</time></trkpt><trkpt lat="43.08664142978195" lon="0.13518750381985867"><ele>506.6</ele><time>2026-04-01T10:39:42Z</time></trkpt><trkpt lat="43.08668689592296" lon="0.13531210163003704"><ele>506.40000000000003</ele><time>2026-04-01T10:39:43Z</time></trkpt><trkpt lat="43.08672756623483" lon="0.13542404310956102"><ele>506.20000000000005</ele><time>2026-04-01T10:39:44Z</time></trkpt><trkpt lat="43.086751074509614" lon="0.13552950038948464"><ele>506.0</ele><time>2026-04-01T10:39:45Z</time></trkpt><trkpt lat="43.08679168529584" lon="0.13561391093467673"><ele>505.99999999999994</ele><time>2026-04-01T10:39:46Z</time></trkpt><trkpt lat="43.08677346499206" lon="0.1357153420322894"><ele>506.0</ele><time>2026-04-01T10:39:48Z</time></trkpt><trkpt lat="43.08669965209895" lon="0.13577293709453347"><ele>506.0</ele><time>2026-04-01T10:39:53Z</time></trkpt><trkpt lat="43.08663133073805" lon="0.13580974135344714"><ele>506.0</ele><time>2026-04-01T10:39:54Z</time></trkpt><trkpt lat="43.086559859879365" lon="0.13585674770303485"><ele>505.99999999999994</ele><time>2026-04-01T10:39:55Z</time></trkpt><trkpt lat="43.086458663764" lon="0.1359170675706464"><ele>506.0</ele><time>2026-04-01T10:39:56Z</time></trkpt><trkpt lat="43.086362304241995" lon="0.13597624982728265"><ele>506.49999999999994</ele><time>2026-04-01T10:39:57Z</time></trkpt><trkpt lat="43.086282314228214" lon="0.13603319918600937"><ele>507.0</ele><time>2026-04-01T10:39:58Z</time></trkpt><trkpt lat="43.08619404418949" lon="0.13608305851909377"><ele>507.5</ele><time>2026-04-01T10:39:59Z</time></trkpt><trkpt lat="43.086117000496436" lon="0.1361313012054011"><ele>508.0</ele><time>2026-04-01T10:40:00Z</time></trkpt><trkpt lat="43.08604335083559" lon="0.13617714503188005"><ele>508.49999999999994</ele><time>2026-04-01T10:40:01Z</time></trkpt><trkpt lat="43.08595423394598" lon="0.13623372171897521"><ele>509.0</ele><time>2026-04-01T10:40:02Z</time></trkpt><trkpt lat="43.08583958298264" lon="0.136303524693921"><ele>509.0</ele><time>2026-04-01T10:40:03Z</time></trkpt><trkpt lat="43.085697240186484" lon="0.1363923651505909"><ele>509.0</ele><time>2026-04-01T10:40:04Z</time></trkpt><trkpt lat="43.08555527828084" lon="0.13647396490231056"><ele>509.0</ele><time>2026-04-01T10:40:05Z</time></trkpt><trkpt lat="43.08541807866824" lon="0.13655900428667012"><ele>509.0</ele><time>2026-04-01T10:40:06Z</time></trkpt><trkpt lat="43.08527834383615" lon="0.13664918773526288"><ele>509.0</ele><time>2026-04-01T10:40:07Z</time></trkpt><trkpt lat="43.08513642224552" lon="0.1367357875512748"><ele>509.0</ele><time>2026-04-01T10:40:08Z</time></trkpt><trkpt lat="43.08499330074841" lon="0.13682160731952211"><ele>509.0</ele><time>2026-04-01T10:40:09Z</time></trkpt><trkpt lat="43.08483621936592" lon="0.1369161181884138"><ele>509.0</ele><time>2026-04-01T10:40:10Z</time></trkpt><trkpt lat="43.08468213091929" lon="0.13700736601959504"><ele>509.0</ele><time>2026-04-01T10:40:11Z</time></trkpt><trkpt lat="43.08453120518487" lon="0.13710353739238126"><ele>509.0</ele><time>2026-04-01T10:40:12Z</time></trkpt><trkpt lat="43.08437387837277" lon="0.137196897457786"><ele>509.0</ele><time>2026-04-01T10:40:13Z</time></trkpt><trkpt lat="43.0842252778562" lon="0.1372944331688279"><ele>509.0</ele><time>2026-04-01T10:40:14Z</time></trkpt><trkpt lat="43.084064504268504" lon="0.13738607817386958"><ele>511.0</ele><time>2026-04-01T10:40:15Z</time></trkpt><trkpt lat="43.08390952943885" lon="0.13747953333446905"><ele>513.0</ele><time>2026-04-01T10:40:16Z</time></trkpt><trkpt lat="43.08375117790222" lon="0.13757554075159664"><ele>515.0</ele><time>2026-04-01T10:40:17Z</time></trkpt><trkpt lat="43.083594862406244" lon="0.1376707161534038"><ele>515.0</ele><time>2026-04-01T10:40:18Z</time></trkpt><trkpt lat="43.08344173981006" lon="0.13776441685583243"><ele>515.0</ele><time>2026-04-01T10:40:19Z</time></trkpt><trkpt lat="43.083289004304014" lon="0.13785619033858124"><ele>515.0</ele><time>2026-04-01T10:40:20Z</time></trkpt><trkpt lat="43.08313225902897" lon="0.1379453173283188"><ele>515.3333333333333</ele><time>2026-04-01T10:40:21Z</time></trkpt><trkpt lat="43.082977005645624" lon="0.13803257134552038"><ele>515.6666666666666</ele><time>2026-04-01T10:40:22Z</time></trkpt><trkpt lat="43.08281702555856" lon="0.13812327306766714"><ele>516.0</ele><time>2026-04-01T10:40:23Z</time></trkpt><trkpt lat="43.0826617801738" lon="0.13821275699146052"><ele>515.6666666666666</ele><time>2026-04-01T10:40:24Z</time></trkpt><trkpt lat="43.08251031071999" lon="0.13830056668916504"><ele>515.3333333333333</ele><time>2026-04-01T10:40:25Z</time></trkpt><trkpt lat="43.08237372992053" lon="0.13837951714106894"><ele>515.0</ele><time>2026-04-01T10:40:26Z</time></trkpt><trkpt lat="43.08224769928403" lon="0.138457947495227"><ele>515.0</ele><time>2026-04-01T10:40:27Z</time></trkpt><trkpt lat="43.082116780202405" lon="0.1385371939478341"><ele>515.0</ele><time>2026-04-01T10:40:28Z</time></trkpt><trkpt lat="43.08198024264972" lon="0.138614052636573"><ele>515.0</ele><time>2026-04-01T10:40:29Z</time></trkpt><trkpt lat="43.08183745355589" lon="0.13868951115753034"><ele>515.0</ele><time>2026-04-01T10:40:30Z</time></trkpt><trkpt lat="43.0816910122844" lon="0.13877430209515346"><ele>515.3333333333333</ele><time>2026-04-01T10:40:31Z</time></trkpt><trkpt lat="43.08154690841198" lon="0.13886423878833187"><ele>515.6666666666666</ele><time>2026-04-01T10:40:32Z</time></trkpt><trkpt lat="43.08140472233016" lon="0.13895013058749875"><ele>516.0</ele><time>2026-04-01T10:40:33Z</time></trkpt><trkpt lat="43.08126653516526" lon="0.13903169028398552"><ele>516.0</ele><time>2026-04-01T10:40:34Z</time></trkpt><trkpt lat="43.08114078017919" lon="0.13910789959858946"><ele>516.0</ele><time>2026-04-01T10:40:35Z</time></trkpt><trkpt lat="43.08103415972458" lon="0.13917524897366731"><ele>516.0</ele><time>2026-04-01T10:40:36Z</time></trkpt><trkpt lat="43.08094141149521" lon="0.13923583662544173"><ele>516.0</ele><time>2026-04-01T10:40:37Z</time></trkpt><trkpt lat="43.08086892334955" lon="0.1392848140522456"><ele>516.0</ele><time>2026-04-01T10:40:38Z</time></trkpt><trkpt lat="43.08077049056398" lon="0.13935461058447282"><ele>516.75</ele><time>2026-04-01T10:40:40Z</time></trkpt><trkpt lat="43.08062903834803" lon="0.13941662620961243"><ele>517.5</ele><time>2026-04-01T10:40:42Z</time></trkpt><trkpt lat="43.08051156827641" lon="0.139483789933496"><ele>518.25</ele><time>2026-04-01T10:40:43Z</time></trkpt><trkpt lat="43.08041645612039" lon="0.13954626568928566"><ele>519.0</ele><time>2026-04-01T10:40:44Z</time></trkpt><trkpt lat="43.08032257137626" lon="0.13960859900787834"><ele>519.0</ele><time>2026-04-01T10:40:45Z</time></trkpt><trkpt lat="43.08021623490351" lon="0.1396735400247742"><ele>519.0</ele><time>2026-04-01T10:40:46Z</time></trkpt><trkpt lat="43.08010353916897" lon="0.1397444317020566"><ele>519.0</ele><time>2026-04-01T10:40:47Z</time></trkpt><trkpt lat="43.07999232363041" lon="0.13981684409371042"><ele>519.0</ele><time>2026-04-01T10:40:48Z</time></trkpt><trkpt lat="43.07987386651008" lon="0.13989055547635945"><ele>519.25</ele><time>2026-04-01T10:40:49Z</time></trkpt><trkpt lat="43.07974846180016" lon="0.13996796464356123"><ele>519.5</ele><time>2026-04-01T10:40:50Z</time></trkpt><trkpt lat="43.079633405697315" lon="0.14003884427829416"><ele>519.75</ele><time>2026-04-01T10:40:51Z</time></trkpt><trkpt lat="43.07952806624161" lon="0.14010153185106822"><ele>520.0</ele><time>2026-04-01T10:40:52Z</time></trkpt><trkpt lat="43.07943217413022" lon="0.1401606827044902"><ele>520.0</ele><time>2026-04-01T10:40:53Z</time></trkpt><trkpt lat="43.07934362734195" lon="0.14021687032954988"><ele>520.0</ele><time>2026-04-01T10:40:54Z</time></trkpt><trkpt lat="43.07924519112807" lon="0.14027753620560035"><ele>520.0</ele><time>2026-04-01T10:40:55Z</time></trkpt><trkpt lat="43.079134452367754" lon="0.14034403949334837"><ele>520.0</ele><time>2026-04-01T10:40:56Z</time></trkpt><trkpt lat="43.07904237932061" lon="0.14039920143405438"><ele>520.0</ele><time>2026-04-01T10:40:57Z</time></trkpt><trkpt lat="43.078958949141494" lon="0.14044794454621534"><ele>520.0</ele><time>2026-04-01T10:40:58Z</time></trkpt><trkpt lat="43.078874183772555" lon="0.14050014014628065"><ele>520.0</ele><time>2026-04-01T10:40:59Z</time></trkpt><trkpt lat="43.078782860657" lon="0.14055981663797465"><ele>520.0</ele><time>2026-04-01T10:41:00Z</time></trkpt><trkpt lat="43.07868557927295" lon="0.14062705661105668"><ele>520.0</ele><time>2026-04-01T10:41:01Z</time></trkpt><trkpt lat="43.07858851234411" lon="0.14068455807942726"><ele>520.0</ele><time>2026-04-01T10:41:02Z</time></trkpt><trkpt lat="43.07849905852021" lon="0.14071814957238674"><ele>520.1666666666667</ele><time>2026-04-01T10:41:03Z</time></trkpt><trkpt lat="43.07842071732937" lon="0.14072810511738532"><ele>520.3333333333334</ele><time>2026-04-01T10:41:04Z</time></trkpt><trkpt lat="43.07835417848936" lon="0.14072404624139748"><ele>520.5</ele><time>2026-04-01T10:41:05Z</time></trkpt><trkpt lat="43.07826353757339" lon="0.1408019664351759"><ele>520.6666666666666</ele><time>2026-04-01T10:41:07Z</time></trkpt><trkpt lat="43.07827840299322" lon="0.14095778348631668"><ele>520.8333333333333</ele><time>2026-04-01T10:41:09Z</time></trkpt><trkpt lat="43.07832931374471" lon="0.14103269187856882"><ele>521.0</ele><time>2026-04-01T10:41:10Z</time></trkpt><trkpt lat="43.078392716351466" lon="0.14109166786955732"><ele>521.0</ele><time>2026-04-01T10:41:11Z</time></trkpt><trkpt lat="43.07844941981653" lon="0.14118119049460706"><ele>521.0</ele><time>2026-04-01T10:41:12Z</time></trkpt><trkpt lat="43.07848873167169" lon="0.1412873576305723"><ele>521.0</ele><time>2026-04-01T10:41:13Z</time></trkpt><trkpt lat="43.07852374414277" lon="0.1413706065272605"><ele>521.0</ele><time>2026-04-01T10:41:14Z</time></trkpt><trkpt lat="43.07857419116494" lon="0.14152231289443054"><ele>521.0</ele><time>2026-04-01T10:41:16Z</time></trkpt><trkpt lat="43.0786927976125" lon="0.1414571344728963"><ele>521.0</ele><time>2026-04-01T10:41:18Z</time></trkpt><trkpt lat="43.07873813373889" lon="0.14139508520746832"><ele>521.0</ele><time>2026-04-01T10:41:20Z</time></trkpt><trkpt lat="43.07884839438325" lon="0.1413522547490868"><ele>521.0</ele><time>2026-04-01T10:41:22Z</time></trkpt><trkpt lat="43.078926033667656" lon="0.14129965930277855"><ele>521.0</ele><time>2026-04-01T10:41:24Z</time></trkpt><trkpt lat="43.079001236434976" lon="0.14120978216335772"><ele>521.0</ele><time>2026-04-01T10:41:28Z</time></trkpt><trkpt lat="43.07906827268229" lon="0.1411431757767659"><ele>521.0</ele><time>2026-04-01T10:41:29Z</time></trkpt><trkpt lat="43.079147720202236" lon="0.14110461794708656"><ele>521.1428571428571</ele><time>2026-04-01T10:41:30Z</time></trkpt><trkpt lat="43.079213421913835" lon="0.14106563981166223"><ele>521.2857142857143</ele><time>2026-04-01T10:41:31Z</time></trkpt><trkpt lat="43.0792765986324" lon="0.14102727909866328"><ele>521.4285714285714</ele><time>2026-04-01T10:41:32Z</time></trkpt><trkpt lat="43.079337363817054" lon="0.1409903826718797"><ele>521.5714285714286</ele><time>2026-04-01T10:41:33Z</time></trkpt><trkpt lat="43.07939564506884" lon="0.1409334672799035"><ele>521.7142857142857</ele><time>2026-04-01T10:41:34Z</time></trkpt><trkpt lat="43.0794583285421" lon="0.1408935174280342"><ele>521.8571428571429</ele><time>2026-04-01T10:41:35Z</time></trkpt><trkpt lat="43.07952168170911" lon="0.14085816573787427"><ele>522.0</ele><time>2026-04-01T10:41:36Z</time></trkpt><trkpt lat="43.07962277520977" lon="0.14081368531187075"><ele>521.6666666666666</ele><time>2026-04-01T10:41:38Z</time></trkpt><trkpt lat="43.0796349939545" lon="0.14070593000694506"><ele>521.3333333333334</ele><time>2026-04-01T10:41:42Z</time></trkpt><trkpt lat="43.07958517145885" lon="0.14060708893469995"><ele>521.0</ele><time>2026-04-01T10:41:44Z</time></trkpt><trkpt lat="43.07954801362742" lon="0.1405218285538298"><ele>520.6666666666667</ele><time>2026-04-01T10:41:46Z</time></trkpt><trkpt lat="43.07949231295205" lon="0.14043431259062797"><ele>520.3333333333334</ele><time>2026-04-01T10:41:49Z</time></trkpt><trkpt lat="43.0795086085289" lon="0.14031981604532018"><ele>520.0</ele><time>2026-04-01T10:42:14Z</time></trkpt><trkpt lat="43.079518780642275" lon="0.14040790366538933"><ele>520.0</ele><time>2026-04-01T10:42:21Z</time></trkpt><trkpt lat="43.07957562308695" lon="0.14034175385462822"><ele>520.0</ele><time>2026-04-01T10:42:33Z</time></trkpt><trkpt lat="43.07959514100257" lon="0.1402591446324551"><ele>520.0</ele><time>2026-04-01T10:42:37.026Z</time></trkpt><trkpt lat="43.07975139933577" lon="0.14035598924425532"><ele>520.0</ele><time>2026-04-01T10:43:10.184Z</time></trkpt><trkpt lat="43.07981486205053" lon="0.14043595978040296"><ele>520.0</ele><time>2026-04-01T10:43:11.523Z</time></trkpt><trkpt lat="43.079702272722635" lon="0.14039961196727938"><ele>520.0</ele><time>2026-04-01T10:43:12.54Z</time></trkpt><trkpt lat="43.079891823714476" lon="0.14043790870462777"><ele>520.0</ele><time>2026-04-01T10:58:52.229Z</time></trkpt><trkpt lat="43.079721729216416" lon="0.14039928833974988"><ele>520.0</ele><time>2026-04-01T11:01:09.827Z</time></trkpt><trkpt lat="43.079656246235345" lon="0.14036926168470468"><ele>520.0</ele><time>2026-04-01T11:01:15.83Z</time></trkpt><trkpt lat="43.07979169911426" lon="0.14043460904032692"><ele>520.0</ele><time>2026-04-01T11:03:23.722Z</time></trkpt><trkpt lat="43.07964046610999" lon="0.14037843001816447"><ele>520.0</ele><time>2026-04-01T11:11:58.438Z</time></trkpt><trkpt lat="43.079762384478805" lon="0.1404553241656941"><ele>520.0</ele><time>2026-04-01T11:15:03.466Z</time></trkpt><trkpt lat="43.079705261747144" lon="0.1404135535247685"><ele>520.0</ele><time>2026-04-01T11:17:26.614Z</time></trkpt><trkpt lat="43.07954925266714" lon="0.1404574096028265"><ele>520.0</ele><time>2026-04-01T11:17:32.621Z</time></trkpt><trkpt lat="43.07976055103408" lon="0.14044484794721968"><ele>520.0</ele><time>2026-04-01T11:17:52.542Z</time></trkpt></trkseg><trkseg><trkpt lat="43.07979973285955" lon="0.1404049026376883"><ele>520.0000000000001</ele><time>2026-04-01T11:31:16.249Z</time></trkpt><trkpt lat="43.07975882325044" lon="0.1404734666103788"><ele>520.0</ele><time>2026-04-01T11:31:35Z</time></trkpt><trkpt lat="43.079696068158746" lon="0.14052171633362595"><ele>520.0</ele><time>2026-04-01T11:31:41Z</time></trkpt><trkpt lat="43.079721060623584" lon="0.14061704269197894"><ele>520.0</ele><time>2026-04-01T11:31:49Z</time></trkpt><trkpt lat="43.079782166822724" lon="0.14066897586899907"><ele>520.0</ele><time>2026-04-01T11:32:01Z</time></trkpt><trkpt lat="43.07979412735833" lon="0.14076638245086365"><ele>520.0000000000001</ele><time>2026-04-01T11:34:06Z</time></trkpt><trkpt lat="43.07978755195839" lon="0.140649654468626"><ele>520.0</ele><time>2026-04-01T11:34:13Z</time></trkpt><trkpt lat="43.0797352831353" lon="0.14056915486514507"><ele>520.0000000000001</ele><time>2026-04-01T11:34:16Z</time></trkpt><trkpt lat="43.07981137844214" lon="0.14054586759358095"><ele>520.0</ele><time>2026-04-01T11:34:34Z</time></trkpt><trkpt lat="43.079890484443396" lon="0.14057688101324609"><ele>520.0</ele><time>2026-04-01T11:35:04Z</time></trkpt><trkpt lat="43.079944705740836" lon="0.14051960780696335"><ele>520.0</ele><time>2026-04-01T11:35:18Z</time></trkpt><trkpt lat="43.080008451577015" lon="0.1404859257990212"><ele>520.0</ele><time>2026-04-01T11:36:05Z</time></trkpt><trkpt lat="43.080061974621714" lon="0.1404367068375148"><ele>520.0000000000001</ele><time>2026-04-01T11:36:14Z</time></trkpt><trkpt lat="43.08011709871286" lon="0.14039412529414494"><ele>520.0</ele><time>2026-04-01T11:36:21Z</time></trkpt><trkpt lat="43.080210972565936" lon="0.1403766747568763"><ele>520.0000000000001</ele><time>2026-04-01T11:36:36Z</time></trkpt><trkpt lat="43.08019248568126" lon="0.1402940136474813"><ele>520.0</ele><time>2026-04-01T11:36:42Z</time></trkpt><trkpt lat="43.08013934020907" lon="0.1402367051183553"><ele>520.0</ele><time>2026-04-01T11:36:48Z</time></trkpt><trkpt lat="43.08006675110916" lon="0.14026132075269743"><ele>520.0</ele><time>2026-04-01T11:37:17Z</time></trkpt><trkpt lat="43.07998574721515" lon="0.14027799493345475"><ele>520.0</ele><time>2026-04-01T11:37:40Z</time></trkpt><trkpt lat="43.07992163453845" lon="0.14031576233367135"><ele>520.0000000000001</ele><time>2026-04-01T11:37:43Z</time></trkpt><trkpt lat="43.07986939460383" lon="0.14036667395011307"><ele>520.0</ele><time>2026-04-01T11:37:49Z</time></trkpt><trkpt lat="43.07980516131416" lon="0.14041009854646508"><ele>520.0</ele><time>2026-04-01T11:37:55Z</time></trkpt><trkpt lat="43.07973790852942" lon="0.14042237996177098"><ele>520.0</ele><time>2026-04-01T11:38:00.001Z</time></trkpt><trkpt lat="43.07967214344507" lon="0.14046157983965815"><ele>520.0</ele><time>2026-04-01T11:38:05Z</time></trkpt><trkpt lat="43.07960462586082" lon="0.1405090522612329"><ele>520.0</ele><time>2026-04-01T11:38:08Z</time></trkpt><trkpt lat="43.07950255105792" lon="0.14055792082729854"><ele>520.0</ele><time>2026-04-01T11:38:21Z</time></trkpt><trkpt lat="43.0794834030527" lon="0.14046444430202476"><ele>520.0</ele><time>2026-04-01T11:38:28Z</time></trkpt><trkpt lat="43.07956168767652" lon="0.14038566884590542"><ele>520.0000000000001</ele><time>2026-04-01T11:39:11Z</time></trkpt><trkpt lat="43.07954021387442" lon="0.14047276493244903"><ele>520.0</ele><time>2026-04-01T11:41:18Z</time></trkpt><trkpt lat="43.07949512338963" lon="0.14053574287175027"><ele>520.0</ele><time>2026-04-01T11:41:27Z</time></trkpt><trkpt lat="43.07952867302423" lon="0.14062998368550791"><ele>520.0</ele><time>2026-04-01T11:44:43Z</time></trkpt><trkpt lat="43.07948419044093" lon="0.14056222194440993"><ele>520.0</ele><time>2026-04-01T11:45:05Z</time></trkpt><trkpt lat="43.07955024988433" lon="0.1405757949953548"><ele>520.0000000000001</ele><time>2026-04-01T11:45:13Z</time></trkpt><trkpt lat="43.07960243099061" lon="0.14062500219313587"><ele>520.0</ele><time>2026-04-01T11:45:18Z</time></trkpt><trkpt lat="43.079553474282996" lon="0.14056660954715341"><ele>520.0000000000001</ele><time>2026-04-01T11:45:37Z</time></trkpt><trkpt lat="43.07949003959128" lon="0.14056705100385952"><ele>520.0</ele><time>2026-04-01T11:45:50Z</time></trkpt><trkpt lat="43.07944638565801" lon="0.14064818862533862"><ele>520.0</ele><time>2026-04-01T11:47:25Z</time></trkpt><trkpt lat="43.07942595548742" lon="0.14055691670995302"><ele>520.0</ele><time>2026-04-01T11:47:49Z</time></trkpt><trkpt lat="43.07948243433306" lon="0.1405166427052565"><ele>520.0</ele><time>2026-04-01T11:48:36Z</time></trkpt><trkpt lat="43.0795228223334" lon="0.1404385889394065"><ele>520.0000000000001</ele><time>2026-04-01T11:50:21.001Z</time></trkpt><trkpt lat="43.07943778429693" lon="0.14046382000503674"><ele>520.0</ele><time>2026-04-01T11:50:24.001Z</time></trkpt><trkpt lat="43.07936766468427" lon="0.14050523076601895"><ele>520.0</ele><time>2026-04-01T11:50:25.001Z</time></trkpt><trkpt lat="43.07927667726325" lon="0.14055093785102205"><ele>520.0</ele><time>2026-04-01T11:50:27.001Z</time></trkpt><trkpt lat="43.0791648094946" lon="0.14060229194392745"><ele>520.0</ele><time>2026-04-01T11:50:29Z</time></trkpt><trkpt lat="43.079105917741764" lon="0.1406374341034252"><ele>520.0</ele><time>2026-04-01T11:50:30Z</time></trkpt><trkpt lat="43.07904495333594" lon="0.1406750904996668"><ele>520.0</ele><time>2026-04-01T11:50:31Z</time></trkpt><trkpt lat="43.07895470940148" lon="0.14074047066105932"><ele>520.0</ele><time>2026-04-01T11:50:33Z</time></trkpt><trkpt lat="43.078880285110465" lon="0.1408000727259037"><ele>520.1666666666667</ele><time>2026-04-01T11:50:35Z</time></trkpt><trkpt lat="43.07882983060573" lon="0.14088743434200643"><ele>520.3333333333334</ele><time>2026-04-01T11:50:37Z</time></trkpt><trkpt lat="43.078785288540814" lon="0.14096486279970002"><ele>520.5</ele><time>2026-04-01T11:50:40Z</time></trkpt><trkpt lat="43.07870585715208" lon="0.1409663039113027"><ele>520.6666666666666</ele><time>2026-04-01T11:52:48Z</time></trkpt><trkpt lat="43.0786438790786" lon="0.14099615949323296"><ele>520.8333333333333</ele><time>2026-04-01T11:53:18Z</time></trkpt><trkpt lat="43.07858409526815" lon="0.14109447977822773"><ele>521.0</ele><time>2026-04-01T11:53:20Z</time></trkpt><trkpt lat="43.07852809777934" lon="0.14114964035082012"><ele>521.0</ele><time>2026-04-01T11:53:23Z</time></trkpt><trkpt lat="43.07845482686775" lon="0.14111328972169773"><ele>521.0</ele><time>2026-04-01T11:53:28Z</time></trkpt><trkpt lat="43.078424920261114" lon="0.1409989185737957"><ele>521.0</ele><time>2026-04-01T11:53:30Z</time></trkpt><trkpt lat="43.07844088334429" lon="0.14091354770026115"><ele>521.0</ele><time>2026-04-01T11:53:31Z</time></trkpt><trkpt lat="43.0784802052892" lon="0.1408300642922971"><ele>521.0</ele><time>2026-04-01T11:53:32Z</time></trkpt><trkpt lat="43.07853507755466" lon="0.14075116504985735"><ele>521.0</ele><time>2026-04-01T11:53:33Z</time></trkpt><trkpt lat="43.07860806120547" lon="0.14068959749750212"><ele>520.75</ele><time>2026-04-01T11:53:34Z</time></trkpt><trkpt lat="43.07869482388414" lon="0.14063759457990918"><ele>520.5</ele><time>2026-04-01T11:53:35Z</time></trkpt><trkpt lat="43.07879708276742" lon="0.14059292262864592"><ele>520.25</ele><time>2026-04-01T11:53:36Z</time></trkpt><trkpt lat="43.07891942654143" lon="0.14053551661644992"><ele>520.0</ele><time>2026-04-01T11:53:37Z</time></trkpt><trkpt lat="43.07903312626017" lon="0.14047292051649796"><ele>520.0</ele><time>2026-04-01T11:53:38Z</time></trkpt><trkpt lat="43.079142413332114" lon="0.14040698837418297"><ele>520.0</ele><time>2026-04-01T11:53:39Z</time></trkpt><trkpt lat="43.07925149776353" lon="0.14033990623543066"><ele>520.0</ele><time>2026-04-01T11:53:40Z</time></trkpt><trkpt lat="43.0793618534873" lon="0.1402764019971235"><ele>520.0</ele><time>2026-04-01T11:53:41Z</time></trkpt><trkpt lat="43.079473529728894" lon="0.1402073320529683"><ele>520.0</ele><time>2026-04-01T11:53:42Z</time></trkpt><trkpt lat="43.07959066672609" lon="0.14014034591070793"><ele>520.0</ele><time>2026-04-01T11:53:43Z</time></trkpt><trkpt lat="43.07970777207197" lon="0.14007128999765417"><ele>520.0</ele><time>2026-04-01T11:53:44Z</time></trkpt><trkpt lat="43.07982728012866" lon="0.13999650868514216"><ele>520.0</ele><time>2026-04-01T11:53:45Z</time></trkpt><trkpt lat="43.07995232165311" lon="0.13991552733420642"><ele>519.75</ele><time>2026-04-01T11:53:46Z</time></trkpt><trkpt lat="43.08008354817724" lon="0.1398328428440534"><ele>519.5</ele><time>2026-04-01T11:53:47Z</time></trkpt><trkpt lat="43.080216830248915" lon="0.13975203382067775"><ele>519.25</ele><time>2026-04-01T11:53:48Z</time></trkpt><trkpt lat="43.08035057205375" lon="0.13967062234538952"><ele>519.0</ele><time>2026-04-01T11:53:49Z</time></trkpt><trkpt lat="43.080481519656445" lon="0.13958886274883045"><ele>519.0</ele><time>2026-04-01T11:53:50Z</time></trkpt><trkpt lat="43.08061225564946" lon="0.1395069558767627"><ele>519.0</ele><time>2026-04-01T11:53:51Z</time></trkpt><trkpt lat="43.080745831877266" lon="0.13942288087704674"><ele>519.0</ele><time>2026-04-01T11:53:52Z</time></trkpt><trkpt lat="43.08088371985899" lon="0.1393368469567423"><ele>519.0</ele><time>2026-04-01T11:53:53Z</time></trkpt><trkpt lat="43.08102028781669" lon="0.13925276567083344"><ele>518.0</ele><time>2026-04-01T11:53:54Z</time></trkpt><trkpt lat="43.08115913873593" lon="0.13916694326012347"><ele>517.0</ele><time>2026-04-01T11:53:55Z</time></trkpt><trkpt lat="43.08130558220638" lon="0.13907977144773942"><ele>516.0</ele><time>2026-04-01T11:53:56Z</time></trkpt><trkpt lat="43.081459459926855" lon="0.13898839959630513"><ele>515.6666666666666</ele><time>2026-04-01T11:53:57Z</time></trkpt><trkpt lat="43.08161107507192" lon="0.13889969542104447"><ele>515.3333333333333</ele><time>2026-04-01T11:53:58Z</time></trkpt><trkpt lat="43.08176579406817" lon="0.13880798891233917"><ele>515.0</ele><time>2026-04-01T11:53:59Z</time></trkpt><trkpt lat="43.0819204604582" lon="0.13871659726202412"><ele>515.0</ele><time>2026-04-01T11:54:00Z</time></trkpt><trkpt lat="43.08206933024023" lon="0.13862628866346247"><ele>515.0</ele><time>2026-04-01T11:54:01Z</time></trkpt><trkpt lat="43.082217189450404" lon="0.13853829739496543"><ele>515.0</ele><time>2026-04-01T11:54:02Z</time></trkpt><trkpt lat="43.082361831028074" lon="0.13845251587897847"><ele>515.0</ele><time>2026-04-01T11:54:03Z</time></trkpt><trkpt lat="43.08249877430936" lon="0.13837371652914196"><ele>515.0</ele><time>2026-04-01T11:54:04Z</time></trkpt><trkpt lat="43.082630337806776" lon="0.1382950100862272"><ele>515.0</ele><time>2026-04-01T11:54:05Z</time></trkpt><trkpt lat="43.08275986333423" lon="0.13821858473856752"><ele>515.0</ele><time>2026-04-01T11:54:06Z</time></trkpt><trkpt lat="43.082892973041766" lon="0.138139415101541"><ele>515.0</ele><time>2026-04-01T11:54:07Z</time></trkpt><trkpt lat="43.083026883329076" lon="0.13805921862496623"><ele>515.0</ele><time>2026-04-01T11:54:08Z</time></trkpt><trkpt lat="43.083173084729985" lon="0.13797047485835198"><ele>515.0</ele><time>2026-04-01T11:54:09Z</time></trkpt><trkpt lat="43.08332605337237" lon="0.13787623086963105"><ele>515.0</ele><time>2026-04-01T11:54:10Z</time></trkpt><trkpt lat="43.083479494726916" lon="0.13778305748024589"><ele>515.0</ele><time>2026-04-01T11:54:11Z</time></trkpt><trkpt lat="43.08362770341589" lon="0.1376915171034132"><ele>515.0</ele><time>2026-04-01T11:54:12Z</time></trkpt><trkpt lat="43.083774183450025" lon="0.13760186576118943"><ele>515.0</ele><time>2026-04-01T11:54:13Z</time></trkpt><trkpt lat="43.0839169419132" lon="0.13751476206953805"><ele>515.0</ele><time>2026-04-01T11:54:14Z</time></trkpt><trkpt lat="43.08405978081247" lon="0.1374283510751813"><ele>515.0</ele><time>2026-04-01T11:54:15Z</time></trkpt><trkpt lat="43.08419279007631" lon="0.13734874899050312"><ele>513.0</ele><time>2026-04-01T11:54:16Z</time></trkpt><trkpt lat="43.084332402057065" lon="0.13726653354885668"><ele>511.0</ele><time>2026-04-01T11:54:17Z</time></trkpt><trkpt lat="43.08447020211646" lon="0.13718209042271978"><ele>509.0</ele><time>2026-04-01T11:54:18Z</time></trkpt><trkpt lat="43.0846051328246" lon="0.13709991324499352"><ele>509.0</ele><time>2026-04-01T11:54:19Z</time></trkpt><trkpt lat="43.08473949332602" lon="0.1370185083713406"><ele>509.0</ele><time>2026-04-01T11:54:20Z</time></trkpt><trkpt lat="43.0848714104556" lon="0.13693640354453337"><ele>509.0</ele><time>2026-04-01T11:54:21Z</time></trkpt><trkpt lat="43.08500058056773" lon="0.136851852635877"><ele>509.0</ele><time>2026-04-01T11:54:22Z</time></trkpt><trkpt lat="43.08512502577739" lon="0.1367719218025496"><ele>509.0</ele><time>2026-04-01T11:54:23Z</time></trkpt><trkpt lat="43.085246787628904" lon="0.13669818285232166"><ele>509.0</ele><time>2026-04-01T11:54:24Z</time></trkpt><trkpt lat="43.08537052455172" lon="0.13662573026104088"><ele>509.0</ele><time>2026-04-01T11:54:25Z</time></trkpt><trkpt lat="43.08549339049291" lon="0.13655080253223523"><ele>509.0</ele><time>2026-04-01T11:54:26Z</time></trkpt><trkpt lat="43.08561342235508" lon="0.13647637472520907"><ele>509.0</ele><time>2026-04-01T11:54:27Z</time></trkpt><trkpt lat="43.08573106580704" lon="0.13640546816754917"><ele>509.0</ele><time>2026-04-01T11:54:28Z</time></trkpt><trkpt lat="43.08584199971118" lon="0.13633745132943986"><ele>509.0</ele><time>2026-04-01T11:54:29Z</time></trkpt><trkpt lat="43.0859457296674" lon="0.13627570713224593"><ele>509.0</ele><time>2026-04-01T11:54:30Z</time></trkpt><trkpt lat="43.086034476848994" lon="0.13622894990452875"><ele>509.0</ele><time>2026-04-01T11:54:31Z</time></trkpt><trkpt lat="43.08609731209484" lon="0.1361897952081649"><ele>509.0</ele><time>2026-04-01T11:54:32Z</time></trkpt><trkpt lat="43.086174561397975" lon="0.1361762100366627"><ele>509.0</ele><time>2026-04-01T11:54:34Z</time></trkpt><trkpt lat="43.08620921857664" lon="0.13631476170346787"><ele>509.0</ele><time>2026-04-01T11:54:36Z</time></trkpt><trkpt lat="43.08624835092237" lon="0.13642357636595043"><ele>509.0</ele><time>2026-04-01T11:54:37Z</time></trkpt><trkpt lat="43.0862985960007" lon="0.13656708865789574"><ele>509.5</ele><time>2026-04-01T11:54:38Z</time></trkpt><trkpt lat="43.08635456275437" lon="0.13672836687291517"><ele>510.0</ele><time>2026-04-01T11:54:39Z</time></trkpt><trkpt lat="43.08640714361673" lon="0.13688393666203116"><ele>510.5</ele><time>2026-04-01T11:54:40Z</time></trkpt><trkpt lat="43.08645653237993" lon="0.13703377190957688"><ele>511.0</ele><time>2026-04-01T11:54:41Z</time></trkpt><trkpt lat="43.086521478783325" lon="0.13718037192650814"><ele>511.0</ele><time>2026-04-01T11:54:42Z</time></trkpt><trkpt lat="43.086565730452676" lon="0.1373408101299682"><ele>511.0</ele><time>2026-04-01T11:54:43Z</time></trkpt><trkpt lat="43.08662046259956" lon="0.13750017255872612"><ele>511.0</ele><time>2026-04-01T11:54:44Z</time></trkpt><trkpt lat="43.08667667282194" lon="0.13765929479239555"><ele>511.0</ele><time>2026-04-01T11:54:45Z</time></trkpt><trkpt lat="43.08673809084676" lon="0.13781811316012998"><ele>510.5</ele><time>2026-04-01T11:54:46Z</time></trkpt><trkpt lat="43.08679606617645" lon="0.1379824447125181"><ele>510.0</ele><time>2026-04-01T11:54:47Z</time></trkpt><trkpt lat="43.086853656027465" lon="0.13814407555059266"><ele>509.5</ele><time>2026-04-01T11:54:48Z</time></trkpt><trkpt lat="43.08690836210073" lon="0.13830542948107788"><ele>509.0</ele><time>2026-04-01T11:54:49Z</time></trkpt><trkpt lat="43.08696071757381" lon="0.13847056328716387"><ele>508.75</ele><time>2026-04-01T11:54:50Z</time></trkpt><trkpt lat="43.087014841120165" lon="0.13863561835991126"><ele>508.5</ele><time>2026-04-01T11:54:51Z</time></trkpt><trkpt lat="43.087073536251204" lon="0.13878940582103533"><ele>508.25</ele><time>2026-04-01T11:54:52Z</time></trkpt><trkpt lat="43.08713380215539" lon="0.13894445932683894"><ele>508.0</ele><time>2026-04-01T11:54:53Z</time></trkpt><trkpt lat="43.08719066528858" lon="0.1390993345985954"><ele>507.75</ele><time>2026-04-01T11:54:54Z</time></trkpt><trkpt lat="43.087246812972865" lon="0.1392544918951228"><ele>507.5</ele><time>2026-04-01T11:54:55Z</time></trkpt><trkpt lat="43.087299425006016" lon="0.13940537039179865"><ele>507.25</ele><time>2026-04-01T11:54:56Z</time></trkpt><trkpt lat="43.08735688424225" lon="0.13955852926224352"><ele>507.0</ele><time>2026-04-01T11:54:57Z</time></trkpt><trkpt lat="43.08741111826635" lon="0.13971845858017723"><ele>507.0</ele><time>2026-04-01T11:54:58Z</time></trkpt><trkpt lat="43.08746597693126" lon="0.1398804843608649"><ele>507.0</ele><time>2026-04-01T11:54:59Z</time></trkpt><trkpt lat="43.08752177976207" lon="0.14004327087304821"><ele>507.0</ele><time>2026-04-01T11:55:00Z</time></trkpt><trkpt lat="43.087577695750454" lon="0.14020056127972577"><ele>507.0</ele><time>2026-04-01T11:55:01Z</time></trkpt><trkpt lat="43.08762552367904" lon="0.14034467293315955"><ele>507.0</ele><time>2026-04-01T11:55:02Z</time></trkpt><trkpt lat="43.087658685465705" lon="0.14046159320450136"><ele>507.0</ele><time>2026-04-01T11:55:03Z</time></trkpt><trkpt lat="43.08769180992794" lon="0.14055349272578122"><ele>507.0</ele><time>2026-04-01T11:55:04Z</time></trkpt><trkpt lat="43.08773904122552" lon="0.14061052016123712"><ele>507.0</ele><time>2026-04-01T11:55:05Z</time></trkpt><trkpt lat="43.087799653853494" lon="0.14065575704395647"><ele>507.0</ele><time>2026-04-01T11:55:06Z</time></trkpt><trkpt lat="43.08788490170699" lon="0.14070661792492697"><ele>507.0</ele><time>2026-04-01T11:55:07Z</time></trkpt><trkpt lat="43.087974513803154" lon="0.1407461762725774"><ele>507.3333333333333</ele><time>2026-04-01T11:55:08Z</time></trkpt><trkpt lat="43.08806557232267" lon="0.14077845697831023"><ele>507.66666666666663</ele><time>2026-04-01T11:55:09Z</time></trkpt><trkpt lat="43.08815118486921" lon="0.14080094152874303"><ele>508.0</ele><time>2026-04-01T11:55:10Z</time></trkpt><trkpt lat="43.088217622152015" lon="0.1408190027036062"><ele>508.3333333333333</ele><time>2026-04-01T11:55:11Z</time></trkpt><trkpt lat="43.08827188313382" lon="0.14088631555343237"><ele>508.66666666666663</ele><time>2026-04-01T11:55:13Z</time></trkpt><trkpt lat="43.088260313031405" lon="0.14097413902449785"><ele>509.0</ele><time>2026-04-01T11:55:16Z</time></trkpt><trkpt lat="43.08812724846423" lon="0.14105529967352234"><ele>509.0</ele><time>2026-04-01T11:55:17Z</time></trkpt><trkpt lat="43.08799002351141" lon="0.1411393869663977"><ele>509.0</ele><time>2026-04-01T11:55:18Z</time></trkpt><trkpt lat="43.08784274211875" lon="0.14124772859287624"><ele>509.0</ele><time>2026-04-01T11:55:19Z</time></trkpt><trkpt lat="43.08772974831394" lon="0.14134398577721652"><ele>509.0</ele><time>2026-04-01T11:55:20Z</time></trkpt><trkpt lat="43.08765190991977" lon="0.14141814073452047"><ele>509.0</ele><time>2026-04-01T11:55:21Z</time></trkpt><trkpt lat="43.08760106829342" lon="0.14147680584778527"><ele>509.0</ele><time>2026-04-01T11:55:22Z</time></trkpt><trkpt lat="43.0875352980706" lon="0.14153254479668237"><ele>509.0</ele><time>2026-04-01T11:55:24Z</time></trkpt><trkpt lat="43.08759710909465" lon="0.14172259360457895"><ele>509.0</ele><time>2026-04-01T11:55:26Z</time></trkpt><trkpt lat="43.08761824889657" lon="0.14181865940551586"><ele>509.6</ele><time>2026-04-01T11:55:27Z</time></trkpt><trkpt lat="43.08754318779701" lon="0.14192489298431774"><ele>510.2</ele><time>2026-04-01T11:55:29Z</time></trkpt><trkpt lat="43.08749351102808" lon="0.14201708421323755"><ele>510.80000000000007</ele><time>2026-04-01T11:55:30Z</time></trkpt><trkpt lat="43.08742622297497" lon="0.14213361135883856"><ele>511.40000000000003</ele><time>2026-04-01T11:55:31Z</time></trkpt><trkpt lat="43.087369140758945" lon="0.14228263748717926"><ele>512.0</ele><time>2026-04-01T11:55:32Z</time></trkpt><trkpt lat="43.08732440181676" lon="0.14245614917216365"><ele>512.75</ele><time>2026-04-01T11:55:33Z</time></trkpt><trkpt lat="43.087279696366416" lon="0.14264094937185542"><ele>513.5</ele><time>2026-04-01T11:55:34Z</time></trkpt><trkpt lat="43.08722942003668" lon="0.142825519377723"><ele>514.25</ele><time>2026-04-01T11:55:35Z</time></trkpt><trkpt lat="43.08717713448044" lon="0.1430079283985388"><ele>515.0</ele><time>2026-04-01T11:55:36Z</time></trkpt><trkpt lat="43.087115032139984" lon="0.14317244661078807"><ele>516.4</ele><time>2026-04-01T11:55:37Z</time></trkpt><trkpt lat="43.087053960197125" lon="0.14330851517312632"><ele>517.8</ele><time>2026-04-01T11:55:38Z</time></trkpt><trkpt lat="43.08700701464544" lon="0.1434417665942006"><ele>519.2</ele><time>2026-04-01T11:55:39Z</time></trkpt><trkpt lat="43.086981947578444" lon="0.14358534930379738"><ele>520.6</ele><time>2026-04-01T11:55:40Z</time></trkpt><trkpt lat="43.08698555325402" lon="0.14372940506054524"><ele>522.0</ele><time>2026-04-01T11:55:41Z</time></trkpt><trkpt lat="43.087012309677334" lon="0.14386222402895318"><ele>522.0</ele><time>2026-04-01T11:55:42Z</time></trkpt><trkpt lat="43.0870447262572" lon="0.14398557018745567"><ele>522.0</ele><time>2026-04-01T11:55:43Z</time></trkpt><trkpt lat="43.08704933383735" lon="0.14410335302001945"><ele>522.0</ele><time>2026-04-01T11:55:44Z</time></trkpt><trkpt lat="43.08701445628528" lon="0.1441857282549791"><ele>522.0</ele><time>2026-04-01T11:55:45Z</time></trkpt><trkpt lat="43.08691029381119" lon="0.14423399161343625"><ele>522.0</ele><time>2026-04-01T11:55:47Z</time></trkpt><trkpt lat="43.08683354533918" lon="0.14420389476361947"><ele>522.0</ele><time>2026-04-01T11:55:48Z</time></trkpt><trkpt lat="43.08674797449218" lon="0.14422154315286162"><ele>524.0</ele><time>2026-04-01T11:55:49Z</time></trkpt><trkpt lat="43.08667214829001" lon="0.1442531269883624"><ele>526.0</ele><time>2026-04-01T11:55:50Z</time></trkpt><trkpt lat="43.086615601252355" lon="0.14431943118307125"><ele>528.0</ele><time>2026-04-01T11:55:51Z</time></trkpt><trkpt lat="43.0866013892028" lon="0.14442839970545146"><ele>530.0</ele><time>2026-04-01T11:55:52Z</time></trkpt><trkpt lat="43.086643783895795" lon="0.1445435059823902"><ele>532.0</ele><time>2026-04-01T11:55:53Z</time></trkpt><trkpt lat="43.08669151185045" lon="0.1446551916320663"><ele>534.0</ele><time>2026-04-01T11:55:54Z</time></trkpt><trkpt lat="43.0867556585199" lon="0.14479379633420936"><ele>535.8</ele><time>2026-04-01T11:55:55Z</time></trkpt><trkpt lat="43.086769966581855" lon="0.14494003488139276"><ele>537.5999999999999</ele><time>2026-04-01T11:55:56Z</time></trkpt><trkpt lat="43.086787409547064" lon="0.14508454617951447"><ele>539.4</ele><time>2026-04-01T11:55:57Z</time></trkpt><trkpt lat="43.08681202357192" lon="0.14522382186527055"><ele>541.1999999999999</ele><time>2026-04-01T11:55:58Z</time></trkpt><trkpt lat="43.08682394899372" lon="0.14535968907946653"><ele>543.0</ele><time>2026-04-01T11:55:59Z</time></trkpt><trkpt lat="43.08683014912581" lon="0.14549691040983476"><ele>543.0</ele><time>2026-04-01T11:56:00Z</time></trkpt><trkpt lat="43.086817539005374" lon="0.14563267317542133"><ele>543.0</ele><time>2026-04-01T11:56:01Z</time></trkpt><trkpt lat="43.086792138541064" lon="0.1457755596621628"><ele>543.0</ele><time>2026-04-01T11:56:02Z</time></trkpt><trkpt lat="43.086770182036695" lon="0.14592966260488985"><ele>543.0</ele><time>2026-04-01T11:56:03Z</time></trkpt><trkpt lat="43.086778607957704" lon="0.1460836105939343"><ele>543.0</ele><time>2026-04-01T11:56:04Z</time></trkpt><trkpt lat="43.08679398677083" lon="0.14623654516744777"><ele>545.75</ele><time>2026-04-01T11:56:05Z</time></trkpt><trkpt lat="43.08681713163248" lon="0.14639629074265667"><ele>548.5</ele><time>2026-04-01T11:56:06Z</time></trkpt><trkpt lat="43.08684189209251" lon="0.1466023441013116"><ele>551.25</ele><time>2026-04-01T11:56:07Z</time></trkpt><trkpt lat="43.08687313483522" lon="0.14681166655630742"><ele>554.0</ele><time>2026-04-01T11:56:08Z</time></trkpt><trkpt lat="43.08690198124595" lon="0.14699225645780148"><ele>555.0</ele><time>2026-04-01T11:56:09Z</time></trkpt><trkpt lat="43.08694297631906" lon="0.14715503378524156"><ele>556.0</ele><time>2026-04-01T11:56:10Z</time></trkpt><trkpt lat="43.08700168309394" lon="0.14729714743855685"><ele>557.0</ele><time>2026-04-01T11:56:11Z</time></trkpt><trkpt lat="43.08706665645258" lon="0.1474331440270339"><ele>558.0</ele><time>2026-04-01T11:56:12Z</time></trkpt><trkpt lat="43.08711838118397" lon="0.14758694426592087"><ele>558.6</ele><time>2026-04-01T11:56:13Z</time></trkpt><trkpt lat="43.08714113665853" lon="0.14774240784329265"><ele>559.1999999999999</ele><time>2026-04-01T11:56:14Z</time></trkpt><trkpt lat="43.087139575852625" lon="0.14789497604583315"><ele>559.8</ele><time>2026-04-01T11:56:15Z</time></trkpt><trkpt lat="43.08711858883404" lon="0.14802885817540767"><ele>560.4</ele><time>2026-04-01T11:56:16Z</time></trkpt><trkpt lat="43.087096386488795" lon="0.14815585868779732"><ele>561.0</ele><time>2026-04-01T11:56:17Z</time></trkpt><trkpt lat="43.08709249620349" lon="0.14828407183348846"><ele>562.8333333333334</ele><time>2026-04-01T11:56:18Z</time></trkpt><trkpt lat="43.0871531497089" lon="0.14833113131171494"><ele>564.6666666666666</ele><time>2026-04-01T11:56:19Z</time></trkpt><trkpt lat="43.08721515657581" lon="0.1483812141576936"><ele>566.5</ele><time>2026-04-01T11:56:20Z</time></trkpt><trkpt lat="43.087298293586244" lon="0.14840548537289275"><ele>568.3333333333333</ele><time>2026-04-01T11:56:21Z</time></trkpt><trkpt lat="43.087390451624145" lon="0.1484019804966895"><ele>570.1666666666666</ele><time>2026-04-01T11:56:22Z</time></trkpt><trkpt lat="43.087482279135656" lon="0.1484137393755173"><ele>572.0</ele><time>2026-04-01T11:56:23Z</time></trkpt><trkpt lat="43.08756108344984" lon="0.1484659834266385"><ele>574.2</ele><time>2026-04-01T11:56:24Z</time></trkpt><trkpt lat="43.087613118209205" lon="0.14861456088506686"><ele>576.4000000000001</ele><time>2026-04-01T11:56:26Z</time></trkpt><trkpt lat="43.087619819207276" lon="0.14873845907586616"><ele>578.5999999999999</ele><time>2026-04-01T11:56:27Z</time></trkpt><trkpt lat="43.0876185523707" lon="0.14888574864269152"><ele>580.8</ele><time>2026-04-01T11:56:28Z</time></trkpt><trkpt lat="43.087609498208124" lon="0.14905425240930706"><ele>583.0</ele><time>2026-04-01T11:56:29Z</time></trkpt><trkpt lat="43.0875848692654" lon="0.14923508615229006"><ele>583.5</ele><time>2026-04-01T11:56:30Z</time></trkpt><trkpt lat="43.08752824097689" lon="0.14940285154379288"><ele>584.0</ele><time>2026-04-01T11:56:31Z</time></trkpt><trkpt lat="43.087461359220974" lon="0.1495723834560944"><ele>584.5</ele><time>2026-04-01T11:56:32Z</time></trkpt><trkpt lat="43.08739852778642" lon="0.1497691040539304"><ele>585.0</ele><time>2026-04-01T11:56:33Z</time></trkpt><trkpt lat="43.08731326387163" lon="0.1499682303317155"><ele>590.3333333333334</ele><time>2026-04-01T11:56:34Z</time></trkpt><trkpt lat="43.08723528000101" lon="0.1501672443416867"><ele>595.6666666666667</ele><time>2026-04-01T11:56:35Z</time></trkpt><trkpt lat="43.08715959325038" lon="0.1503571220049043"><ele>601.0</ele><time>2026-04-01T11:56:36Z</time></trkpt><trkpt lat="43.087079388156766" lon="0.15055067923023122"><ele>603.6666666666667</ele><time>2026-04-01T11:56:37Z</time></trkpt><trkpt lat="43.08700092439358" lon="0.1507512994709893"><ele>606.3333333333334</ele><time>2026-04-01T11:56:38Z</time></trkpt><trkpt lat="43.08692035526625" lon="0.15095728907100248"><ele>609.0</ele><time>2026-04-01T11:56:39Z</time></trkpt><trkpt lat="43.08684146579713" lon="0.15116336443123266"><ele>609.0</ele><time>2026-04-01T11:56:40Z</time></trkpt><trkpt lat="43.086757390002745" lon="0.1513709229118423"><ele>609.0</ele><time>2026-04-01T11:56:41Z</time></trkpt><trkpt lat="43.08667523938662" lon="0.15156437544433157"><ele>609.0</ele><time>2026-04-01T11:56:42Z</time></trkpt><trkpt lat="43.08659021767762" lon="0.15176162697989487"><ele>610.3333333333334</ele><time>2026-04-01T11:56:43Z</time></trkpt><trkpt lat="43.08650351633046" lon="0.1519494291372257"><ele>611.6666666666667</ele><time>2026-04-01T11:56:44Z</time></trkpt><trkpt lat="43.086416624609996" lon="0.15213364865815757"><ele>613.0</ele><time>2026-04-01T11:56:45Z</time></trkpt><trkpt lat="43.08633155974123" lon="0.15232090354006414"><ele>616.0</ele><time>2026-04-01T11:56:46Z</time></trkpt><trkpt lat="43.08625024440802" lon="0.15250801607093695"><ele>619.0</ele><time>2026-04-01T11:56:47Z</time></trkpt><trkpt lat="43.086161697932724" lon="0.15269598747386315"><ele>622.0</ele><time>2026-04-01T11:56:48Z</time></trkpt><trkpt lat="43.08608135713343" lon="0.1528961427114118"><ele>622.0</ele><time>2026-04-01T11:56:49Z</time></trkpt><trkpt lat="43.08598844219651" lon="0.153106035804434"><ele>622.0</ele><time>2026-04-01T11:56:50Z</time></trkpt><trkpt lat="43.085894199725296" lon="0.15331122836903385"><ele>622.0</ele><time>2026-04-01T11:56:51Z</time></trkpt><trkpt lat="43.08580390195996" lon="0.15350229467344167"><ele>623.0</ele><time>2026-04-01T11:56:52Z</time></trkpt><trkpt lat="43.08572320752803" lon="0.15368229461020091"><ele>624.0</ele><time>2026-04-01T11:56:53Z</time></trkpt><trkpt lat="43.08565346722516" lon="0.1538653342674134"><ele>625.0</ele><time>2026-04-01T11:56:54Z</time></trkpt><trkpt lat="43.085587029640074" lon="0.1540495497383994"><ele>627.0</ele><time>2026-04-01T11:56:55Z</time></trkpt><trkpt lat="43.085519533252096" lon="0.15423761077360587"><ele>629.0</ele><time>2026-04-01T11:56:56Z</time></trkpt><trkpt lat="43.08545504309445" lon="0.1544247549670291"><ele>631.0</ele><time>2026-04-01T11:56:57Z</time></trkpt><trkpt lat="43.0853897167268" lon="0.15461173012294574"><ele>631.0</ele><time>2026-04-01T11:56:58Z</time></trkpt><trkpt lat="43.08532027192165" lon="0.15480611868427493"><ele>631.0</ele><time>2026-04-01T11:56:59Z</time></trkpt><trkpt lat="43.08524857743306" lon="0.1550129461141688"><ele>631.0</ele><time>2026-04-01T11:57:00Z</time></trkpt><trkpt lat="43.085178676191525" lon="0.15522580604957098"><ele>632.3333333333334</ele><time>2026-04-01T11:57:01Z</time></trkpt><trkpt lat="43.085112786155065" lon="0.15544388015998145"><ele>633.6666666666666</ele><time>2026-04-01T11:57:02Z</time></trkpt><trkpt lat="43.08505180168335" lon="0.15567022509543613"><ele>635.0</ele><time>2026-04-01T11:57:03Z</time></trkpt><trkpt lat="43.08499578346356" lon="0.15589206687147145"><ele>636.0</ele><time>2026-04-01T11:57:04Z</time></trkpt><trkpt lat="43.08494163131816" lon="0.1561170518176627"><ele>637.0</ele><time>2026-04-01T11:57:05Z</time></trkpt><trkpt lat="43.08488796534153" lon="0.15633964081785306"><ele>638.0</ele><time>2026-04-01T11:57:06Z</time></trkpt><trkpt lat="43.08483068141787" lon="0.15656946753121104"><ele>638.0</ele><time>2026-04-01T11:57:07Z</time></trkpt><trkpt lat="43.08477910226588" lon="0.1567840713748766"><ele>638.0</ele><time>2026-04-01T11:57:08Z</time></trkpt><trkpt lat="43.08472680447856" lon="0.1570054607768524"><ele>638.0</ele><time>2026-04-01T11:57:09Z</time></trkpt><trkpt lat="43.084675685135956" lon="0.15722028538918514"><ele>639.6666666666666</ele><time>2026-04-01T11:57:10Z</time></trkpt><trkpt lat="43.08461728037286" lon="0.15744321456118276"><ele>641.3333333333334</ele><time>2026-04-01T11:57:11Z</time></trkpt><trkpt lat="43.08456001491817" lon="0.15766751125920236"><ele>643.0</ele><time>2026-04-01T11:57:12Z</time></trkpt><trkpt lat="43.08450665339066" lon="0.15789348018349758"><ele>643.0</ele><time>2026-04-01T11:57:13Z</time></trkpt><trkpt lat="43.08445487544629" lon="0.1581173831258042"><ele>643.0</ele><time>2026-04-01T11:57:14Z</time></trkpt><trkpt lat="43.084401394632216" lon="0.1583380211890824"><ele>643.0</ele><time>2026-04-01T11:57:15Z</time></trkpt><trkpt lat="43.08434523487942" lon="0.1585615067108764"><ele>644.6666666666667</ele><time>2026-04-01T11:57:16Z</time></trkpt><trkpt lat="43.08428621653078" lon="0.15879270570758558"><ele>646.3333333333334</ele><time>2026-04-01T11:57:17Z</time></trkpt><trkpt lat="43.08422976297384" lon="0.15902565894219434"><ele>648.0</ele><time>2026-04-01T11:57:18Z</time></trkpt><trkpt lat="43.08416930021713" lon="0.1592525412759181"><ele>647.3333333333334</ele><time>2026-04-01T11:57:19Z</time></trkpt><trkpt lat="43.084110143994096" lon="0.15948453773454768"><ele>646.6666666666667</ele><time>2026-04-01T11:57:20Z</time></trkpt><trkpt lat="43.08405534022785" lon="0.15971561532262643"><ele>646.0</ele><time>2026-04-01T11:57:21Z</time></trkpt><trkpt lat="43.08400320324976" lon="0.15994881247637427"><ele>646.0</ele><time>2026-04-01T11:57:22Z</time></trkpt><trkpt lat="43.083929602556466" lon="0.16017207870113265"><ele>646.0</ele><time>2026-04-01T11:57:23Z</time></trkpt><trkpt lat="43.08388517904164" lon="0.16040783396898275"><ele>646.0</ele><time>2026-04-01T11:57:24Z</time></trkpt><trkpt lat="43.083821665525676" lon="0.16063421639089134"><ele>646.6666666666667</ele><time>2026-04-01T11:57:25Z</time></trkpt><trkpt lat="43.08376451344309" lon="0.16085792076482233"><ele>647.3333333333334</ele><time>2026-04-01T11:57:26Z</time></trkpt><trkpt lat="43.08371073390879" lon="0.16108034714932407"><ele>648.0</ele><time>2026-04-01T11:57:27Z</time></trkpt><trkpt lat="43.0836557901465" lon="0.16130018783128997"><ele>648.0</ele><time>2026-04-01T11:57:28Z</time></trkpt><trkpt lat="43.08359982085626" lon="0.1615194388360076"><ele>648.0</ele><time>2026-04-01T11:57:29Z</time></trkpt><trkpt lat="43.08354787744335" lon="0.16173291325159073"><ele>648.0</ele><time>2026-04-01T11:57:30Z</time></trkpt><trkpt lat="43.08349779908321" lon="0.1619364402512178"><ele>649.0</ele><time>2026-04-01T11:57:31Z</time></trkpt><trkpt lat="43.083451862086754" lon="0.16213412654754764"><ele>650.0</ele><time>2026-04-01T11:57:32Z</time></trkpt><trkpt lat="43.08339774704695" lon="0.16234380901124776"><ele>651.0</ele><time>2026-04-01T11:57:33Z</time></trkpt><trkpt lat="43.083344271330844" lon="0.16254636481817422"><ele>651.3333333333334</ele><time>2026-04-01T11:57:34Z</time></trkpt><trkpt lat="43.08329343673865" lon="0.16274633685368392"><ele>651.6666666666667</ele><time>2026-04-01T11:57:35Z</time></trkpt><trkpt lat="43.08324204391005" lon="0.1629497157069009"><ele>652.0</ele><time>2026-04-01T11:57:36Z</time></trkpt><trkpt lat="43.083187808271376" lon="0.16315019232466466"><ele>649.3333333333334</ele><time>2026-04-01T11:57:37Z</time></trkpt><trkpt lat="43.08312936451239" lon="0.16334523912598822"><ele>646.6666666666666</ele><time>2026-04-01T11:57:38Z</time></trkpt><trkpt lat="43.08306486744273" lon="0.16354104559669158"><ele>644.0</ele><time>2026-04-01T11:57:39Z</time></trkpt><trkpt lat="43.082990369332585" lon="0.16373114615558998"><ele>644.0</ele><time>2026-04-01T11:57:40Z</time></trkpt><trkpt lat="43.08290913762261" lon="0.16391308995468948"><ele>644.0</ele><time>2026-04-01T11:57:41Z</time></trkpt><trkpt lat="43.08283117042654" lon="0.16408612298168962"><ele>644.0</ele><time>2026-04-01T11:57:42Z</time></trkpt><trkpt lat="43.08276049193135" lon="0.16424657277482144"><ele>644.0</ele><time>2026-04-01T11:57:43Z</time></trkpt><trkpt lat="43.08269304432945" lon="0.16439331860452736"><ele>644.4000000000001</ele><time>2026-04-01T11:57:44Z</time></trkpt><trkpt lat="43.08262584258362" lon="0.16452050317763983"><ele>644.8</ele><time>2026-04-01T11:57:45Z</time></trkpt><trkpt lat="43.082552926279654" lon="0.16460237258786567"><ele>645.2</ele><time>2026-04-01T11:57:46Z</time></trkpt><trkpt lat="43.08246518275517" lon="0.164661016787128"><ele>645.5999999999999</ele><time>2026-04-01T11:57:47Z</time></trkpt><trkpt lat="43.082385323021605" lon="0.16467241197270005"><ele>646.0</ele><time>2026-04-01T11:57:48Z</time></trkpt><trkpt lat="43.08228239803541" lon="0.1647077535625949"><ele>646.25</ele><time>2026-04-01T11:57:50Z</time></trkpt><trkpt lat="43.08224589267006" lon="0.1648085562647017"><ele>646.5</ele><time>2026-04-01T11:57:54Z</time></trkpt><trkpt lat="43.08234063670984" lon="0.16500673658213041"><ele>646.75</ele><time>2026-04-01T11:57:56Z</time></trkpt><trkpt lat="43.08239896341388" lon="0.16514074104910617"><ele>647.0</ele><time>2026-04-01T11:57:57Z</time></trkpt><trkpt lat="43.08246692115463" lon="0.16527838244028317"><ele>646.0</ele><time>2026-04-01T11:57:58Z</time></trkpt><trkpt lat="43.08248838293294" lon="0.16549021445240936"><ele>645.0</ele><time>2026-04-01T11:57:59Z</time></trkpt><trkpt lat="43.08253837721741" lon="0.16570107119927135"><ele>644.0</ele><time>2026-04-01T11:58:00Z</time></trkpt><trkpt lat="43.08259054633592" lon="0.16591889035800575"><ele>643.0</ele><time>2026-04-01T11:58:01Z</time></trkpt><trkpt lat="43.08264432082772" lon="0.16613793800199267"><ele>642.0</ele><time>2026-04-01T11:58:02Z</time></trkpt><trkpt lat="43.08269681416493" lon="0.16638258156502364"><ele>641.0</ele><time>2026-04-01T11:58:03Z</time></trkpt><trkpt lat="43.082747259254155" lon="0.1666245416758991"><ele>641.0</ele><time>2026-04-01T11:58:04Z</time></trkpt><trkpt lat="43.08280243493998" lon="0.1668665395569022"><ele>641.0</ele><time>2026-04-01T11:58:05Z</time></trkpt><trkpt lat="43.082856848395004" lon="0.16710711575481893"><ele>641.0</ele><time>2026-04-01T11:58:06Z</time></trkpt><trkpt lat="43.082913255704554" lon="0.1673449042820244"><ele>640.6666666666666</ele><time>2026-04-01T11:58:07Z</time></trkpt><trkpt lat="43.082969396051624" lon="0.16758231861152242"><ele>640.3333333333334</ele><time>2026-04-01T11:58:08Z</time></trkpt><trkpt lat="43.083020574064186" lon="0.16781328880851198"><ele>640.0</ele><time>2026-04-01T11:58:09Z</time></trkpt><trkpt lat="43.08307195221084" lon="0.16804288560071226"><ele>640.6666666666667</ele><time>2026-04-01T11:58:10Z</time></trkpt><trkpt lat="43.083122821681044" lon="0.16826592224051184"><ele>641.3333333333334</ele><time>2026-04-01T11:58:11Z</time></trkpt><trkpt lat="43.08317202783046" lon="0.16848813473918445"><ele>642.0</ele><time>2026-04-01T11:58:12Z</time></trkpt><trkpt lat="43.08322118004335" lon="0.16870839899799714"><ele>640.0</ele><time>2026-04-01T11:58:13Z</time></trkpt><trkpt lat="43.083270284288275" lon="0.16893117642893707"><ele>638.0</ele><time>2026-04-01T11:58:14Z</time></trkpt><trkpt lat="43.08331958385803" lon="0.16915075486550732"><ele>636.0</ele><time>2026-04-01T11:58:15Z</time></trkpt><trkpt lat="43.0833699516606" lon="0.1693666393948703"><ele>636.0</ele><time>2026-04-01T11:58:16Z</time></trkpt><trkpt lat="43.08342260681995" lon="0.16959015560796303"><ele>636.0</ele><time>2026-04-01T11:58:17Z</time></trkpt><trkpt lat="43.08346554769867" lon="0.16981328114299044"><ele>636.0</ele><time>2026-04-01T11:58:18Z</time></trkpt><trkpt lat="43.083496246422285" lon="0.17004174593585022"><ele>635.6666666666666</ele><time>2026-04-01T11:58:19Z</time></trkpt><trkpt lat="43.08349309900213" lon="0.17026326438877296"><ele>635.3333333333333</ele><time>2026-04-01T11:58:20Z</time></trkpt><trkpt lat="43.08345809678118" lon="0.1704696333391681"><ele>635.0</ele><time>2026-04-01T11:58:21Z</time></trkpt><trkpt lat="43.083398768633025" lon="0.1706420186983632"><ele>634.25</ele><time>2026-04-01T11:58:22Z</time></trkpt><trkpt lat="43.083311144478444" lon="0.17078241416530227"><ele>633.5</ele><time>2026-04-01T11:58:23Z</time></trkpt><trkpt lat="43.083221612152485" lon="0.17092428342194285"><ele>632.75</ele><time>2026-04-01T11:58:24Z</time></trkpt><trkpt lat="43.08315255473987" lon="0.17105834714542195"><ele>632.0</ele><time>2026-04-01T11:58:25.001Z</time></trkpt><trkpt lat="43.08307447047665" lon="0.17117130239919728"><ele>632.0</ele><time>2026-04-01T11:58:26.001Z</time></trkpt><trkpt lat="43.08300332554952" lon="0.17128105292427837"><ele>632.0</ele><time>2026-04-01T11:58:27.001Z</time></trkpt><trkpt lat="43.08293498311191" lon="0.17139036919170753"><ele>632.0</ele><time>2026-04-01T11:58:28.001Z</time></trkpt><trkpt lat="43.082873390281065" lon="0.17150000180187325"><ele>632.0</ele><time>2026-04-01T11:58:29.001Z</time></trkpt><trkpt lat="43.08282030750191" lon="0.17161318228942146"><ele>632.0</ele><time>2026-04-01T11:58:30Z</time></trkpt><trkpt lat="43.08277779425972" lon="0.17171364909045853"><ele>632.0</ele><time>2026-04-01T11:58:31Z</time></trkpt><trkpt lat="43.082753687270156" lon="0.171799285310631"><ele>632.0</ele><time>2026-04-01T11:58:32Z</time></trkpt><trkpt lat="43.08273093335899" lon="0.17189188726248794"><ele>632.0</ele><time>2026-04-01T11:58:33Z</time></trkpt><trkpt lat="43.08269729670834" lon="0.17201212135787178"><ele>632.0</ele><time>2026-04-01T11:58:35Z</time></trkpt><trkpt lat="43.08276593424499" lon="0.17187332775678837"><ele>632.0</ele><time>2026-04-01T11:58:43Z</time></trkpt><trkpt lat="43.08279205767421" lon="0.17176750148874137"><ele>632.0</ele><time>2026-04-01T11:58:44Z</time></trkpt><trkpt lat="43.08283380547097" lon="0.17164557712381756"><ele>632.0</ele><time>2026-04-01T11:58:45Z</time></trkpt><trkpt lat="43.08288802554393" lon="0.17152560457616492"><ele>632.0</ele><time>2026-04-01T11:58:46Z</time></trkpt><trkpt lat="43.08295633058109" lon="0.17140221379408843"><ele>632.0</ele><time>2026-04-01T11:58:47Z</time></trkpt><trkpt lat="43.08304374207342" lon="0.171256209706663"><ele>632.0</ele><time>2026-04-01T11:58:48Z</time></trkpt><trkpt lat="43.08313820584165" lon="0.17110232000282397"><ele>632.0</ele><time>2026-04-01T11:58:49Z</time></trkpt><trkpt lat="43.08322905019814" lon="0.17095610487830476"><ele>632.0</ele><time>2026-04-01T11:58:50Z</time></trkpt><trkpt lat="43.08330987193593" lon="0.17082890615956114"><ele>632.0</ele><time>2026-04-01T11:58:51Z</time></trkpt><trkpt lat="43.08338138168949" lon="0.17071041741942178"><ele>632.0</ele><time>2026-04-01T11:58:52Z</time></trkpt><trkpt lat="43.08343876758502" lon="0.1705918220176355"><ele>632.6</ele><time>2026-04-01T11:58:53Z</time></trkpt><trkpt lat="43.08348236310154" lon="0.1704555377324622"><ele>633.2</ele><time>2026-04-01T11:58:54Z</time></trkpt><trkpt lat="43.08350500070098" lon="0.1703070863759819"><ele>633.8</ele><time>2026-04-01T11:58:55Z</time></trkpt><trkpt lat="43.08351114586563" lon="0.17015810841930679"><ele>634.4</ele><time>2026-04-01T11:58:56Z</time></trkpt><trkpt lat="43.083509913531984" lon="0.17002085204297634"><ele>635.0</ele><time>2026-04-01T11:58:57Z</time></trkpt><trkpt lat="43.083495804482745" lon="0.16991156754351888"><ele>635.0</ele><time>2026-04-01T11:58:58Z</time></trkpt><trkpt lat="43.08350627832519" lon="0.16980283941171653"><ele>635.0</ele><time>2026-04-01T11:59:00Z</time></trkpt><trkpt lat="43.08358865759686" lon="0.16985947023152534"><ele>635.0</ele><time>2026-04-01T11:59:03Z</time></trkpt><trkpt lat="43.083647241795234" lon="0.16991335261897078"><ele>635.0</ele><time>2026-04-01T11:59:04Z</time></trkpt><trkpt lat="43.08372475497562" lon="0.16996196010165013"><ele>635.0</ele><time>2026-04-01T11:59:05Z</time></trkpt><trkpt lat="43.08381265997049" lon="0.1700694014408045"><ele>635.0</ele><time>2026-04-01T11:59:06Z</time></trkpt><trkpt lat="43.08391004643184" lon="0.17016398983960457"><ele>635.0</ele><time>2026-04-01T11:59:07Z</time></trkpt><trkpt lat="43.0840236435459" lon="0.17025196081222613"><ele>635.0</ele><time>2026-04-01T11:59:08Z</time></trkpt><trkpt lat="43.084125098766116" lon="0.17035106909149683"><ele>635.0</ele><time>2026-04-01T11:59:09Z</time></trkpt><trkpt lat="43.0842303549629" lon="0.1704513857448744"><ele>635.0</ele><time>2026-04-01T11:59:10Z</time></trkpt><trkpt lat="43.084341775947905" lon="0.1705593471336188"><ele>633.75</ele><time>2026-04-01T11:59:11Z</time></trkpt><trkpt lat="43.08443787558683" lon="0.1706802364711589"><ele>632.5</ele><time>2026-04-01T11:59:12Z</time></trkpt><trkpt lat="43.084555041639106" lon="0.17077031818768837"><ele>631.25</ele><time>2026-04-01T11:59:13Z</time></trkpt><trkpt lat="43.08465420271177" lon="0.17086162688275258"><ele>630.0</ele><time>2026-04-01T11:59:14Z</time></trkpt><trkpt lat="43.084742132429085" lon="0.17094994548826234"><ele>629.6</ele><time>2026-04-01T11:59:15Z</time></trkpt><trkpt lat="43.08482917994561" lon="0.17103113548554347"><ele>629.2</ele><time>2026-04-01T11:59:16Z</time></trkpt><trkpt lat="43.08492286477189" lon="0.17111646261280855"><ele>628.8</ele><time>2026-04-01T11:59:17Z</time></trkpt><trkpt lat="43.085013512626155" lon="0.17119656658806673"><ele>628.4</ele><time>2026-04-01T11:59:18Z</time></trkpt><trkpt lat="43.08508994583165" lon="0.17129846001039206"><ele>628.0</ele><time>2026-04-01T11:59:19Z</time></trkpt><trkpt lat="43.085182473743515" lon="0.17136384871640598"><ele>627.75</ele><time>2026-04-01T11:59:20Z</time></trkpt><trkpt lat="43.08527540552064" lon="0.1714548298016323"><ele>627.5</ele><time>2026-04-01T11:59:21Z</time></trkpt><trkpt lat="43.085371922705946" lon="0.17154849810068765"><ele>627.25</ele><time>2026-04-01T11:59:22Z</time></trkpt><trkpt lat="43.085471058712464" lon="0.17164507595348102"><ele>627.0</ele><time>2026-04-01T11:59:23Z</time></trkpt><trkpt lat="43.08556951870054" lon="0.17174197837333322"><ele>626.5</ele><time>2026-04-01T11:59:24Z</time></trkpt><trkpt lat="43.08567624631844" lon="0.1718453037689671"><ele>626.0</ele><time>2026-04-01T11:59:25Z</time></trkpt><trkpt lat="43.085769788428195" lon="0.17196582488039053"><ele>625.5</ele><time>2026-04-01T11:59:26Z</time></trkpt><trkpt lat="43.08588219885549" lon="0.17205478763170237"><ele>625.0</ele><time>2026-04-01T11:59:27Z</time></trkpt><trkpt lat="43.08598496089942" lon="0.172154652940091"><ele>625.0</ele><time>2026-04-01T11:59:28Z</time></trkpt><trkpt lat="43.08608330590471" lon="0.1722537877709432"><ele>625.0</ele><time>2026-04-01T11:59:29Z</time></trkpt><trkpt lat="43.08618265926727" lon="0.17235227251696228"><ele>625.0</ele><time>2026-04-01T11:59:30Z</time></trkpt><trkpt lat="43.086273809046745" lon="0.17245865934182225"><ele>625.0</ele><time>2026-04-01T11:59:31Z</time></trkpt><trkpt lat="43.086364462287655" lon="0.17255266115732212"><ele>624.25</ele><time>2026-04-01T11:59:32Z</time></trkpt><trkpt lat="43.08646981445762" lon="0.1726342413312394"><ele>623.5</ele><time>2026-04-01T11:59:33Z</time></trkpt><trkpt lat="43.08656276743246" lon="0.17272544960584715"><ele>622.75</ele><time>2026-04-01T11:59:34Z</time></trkpt><trkpt lat="43.08665706204147" lon="0.1728172451510241"><ele>622.0</ele><time>2026-04-01T11:59:35Z</time></trkpt><trkpt lat="43.08675844042232" lon="0.1729101816247346"><ele>622.0</ele><time>2026-04-01T11:59:36Z</time></trkpt><trkpt lat="43.08686610524537" lon="0.17301488336658663"><ele>622.0</ele><time>2026-04-01T11:59:37Z</time></trkpt><trkpt lat="43.086973699802" lon="0.17311711957792356"><ele>622.0</ele><time>2026-04-01T11:59:38Z</time></trkpt><trkpt lat="43.087080807582375" lon="0.17322284972612065"><ele>622.0</ele><time>2026-04-01T11:59:39Z</time></trkpt><trkpt lat="43.08718738628934" lon="0.17332790445188223"><ele>622.0</ele><time>2026-04-01T11:59:40Z</time></trkpt><trkpt lat="43.08729220517278" lon="0.1734319346570515"><ele>622.0</ele><time>2026-04-01T11:59:41Z</time></trkpt><trkpt lat="43.08740130720952" lon="0.17353928927967227"><ele>622.0</ele><time>2026-04-01T11:59:42Z</time></trkpt><trkpt lat="43.08751026950616" lon="0.17365005364261477"><ele>622.0</ele><time>2026-04-01T11:59:43Z</time></trkpt><trkpt lat="43.0876202072279" lon="0.17376386717466863"><ele>622.0</ele><time>2026-04-01T11:59:44Z</time></trkpt><trkpt lat="43.087722988543504" lon="0.17386246607674286"><ele>622.0</ele><time>2026-04-01T11:59:45Z</time></trkpt><trkpt lat="43.08781791814918" lon="0.17398419740637297"><ele>622.0</ele><time>2026-04-01T11:59:46Z</time></trkpt><trkpt lat="43.08793464514617" lon="0.17406532077832831"><ele>622.0</ele><time>2026-04-01T11:59:47Z</time></trkpt><trkpt lat="43.08803017435294" lon="0.17418627735906267"><ele>622.0</ele><time>2026-04-01T11:59:48Z</time></trkpt><trkpt lat="43.08812720899251" lon="0.17428469138885336"><ele>622.0</ele><time>2026-04-01T11:59:49Z</time></trkpt><trkpt lat="43.08822720520583" lon="0.17436104225192092"><ele>622.0</ele><time>2026-04-01T11:59:50Z</time></trkpt><trkpt lat="43.08831397697706" lon="0.17443499598819298"><ele>622.0</ele><time>2026-04-01T11:59:51Z</time></trkpt><trkpt lat="43.088391366227164" lon="0.17453935717239516"><ele>622.0</ele><time>2026-04-01T11:59:52Z</time></trkpt><trkpt lat="43.08846138839329" lon="0.1746120858739211"><ele>622.0</ele><time>2026-04-01T11:59:53Z</time></trkpt><trkpt lat="43.08853158793725" lon="0.17468608279159956"><ele>622.0</ele><time>2026-04-01T11:59:55Z</time></trkpt><trkpt lat="43.08860761711081" lon="0.17459589467029146"><ele>622.0</ele><time>2026-04-01T11:59:59Z</time></trkpt><trkpt lat="43.08868637967588" lon="0.17449585985513624"><ele>622.0</ele><time>2026-04-01T12:00:53Z</time></trkpt><trkpt lat="43.088734323078754" lon="0.1744224593384935"><ele>622.0</ele><time>2026-04-01T12:00:56Z</time></trkpt><trkpt lat="43.088805455428385" lon="0.17448469404921188"><ele>622.0</ele><time>2026-04-01T12:00:57Z</time></trkpt><trkpt lat="43.08886282965845" lon="0.17460310470621493"><ele>622.0</ele><time>2026-04-01T12:00:58Z</time></trkpt><trkpt lat="43.08893571034626" lon="0.17472237962633286"><ele>622.0</ele><time>2026-04-01T12:00:59Z</time></trkpt><trkpt lat="43.08901973296062" lon="0.17485279275878424"><ele>622.0</ele><time>2026-04-01T12:01:00Z</time></trkpt><trkpt lat="43.08911119412108" lon="0.17500044736258014"><ele>622.0</ele><time>2026-04-01T12:01:01Z</time></trkpt><trkpt lat="43.08922031537062" lon="0.17519194910063537"><ele>622.0</ele><time>2026-04-01T12:01:02Z</time></trkpt><trkpt lat="43.089339353079374" lon="0.17540699514774552"><ele>622.0</ele><time>2026-04-01T12:01:03Z</time></trkpt><trkpt lat="43.089448304939395" lon="0.17560506404568105"><ele>621.0</ele><time>2026-04-01T12:01:04Z</time></trkpt><trkpt lat="43.08956114737403" lon="0.1758134601000337"><ele>620.0</ele><time>2026-04-01T12:01:05Z</time></trkpt><trkpt lat="43.08967552784439" lon="0.17602800027214693"><ele>619.0</ele><time>2026-04-01T12:01:06Z</time></trkpt><trkpt lat="43.08979254779029" lon="0.1762582438802109"><ele>619.0</ele><time>2026-04-01T12:01:07Z</time></trkpt><trkpt lat="43.08991742409084" lon="0.17651142676305184"><ele>619.0</ele><time>2026-04-01T12:01:08Z</time></trkpt><trkpt lat="43.09004153579736" lon="0.17677664335612833"><ele>617.0</ele><time>2026-04-01T12:01:09Z</time></trkpt><trkpt lat="43.09016157945708" lon="0.1770440098249757"><ele>615.0</ele><time>2026-04-01T12:01:10Z</time></trkpt><trkpt lat="43.090280049220304" lon="0.17731735357842088"><ele>612.5</ele><time>2026-04-01T12:01:11Z</time></trkpt><trkpt lat="43.090399428301296" lon="0.1775956987310797"><ele>610.0</ele><time>2026-04-01T12:01:12Z</time></trkpt><trkpt lat="43.090518846489445" lon="0.17787233977948397"><ele>610.0</ele><time>2026-04-01T12:01:13Z</time></trkpt><trkpt lat="43.09063543234204" lon="0.17814775112678502"><ele>610.0</ele><time>2026-04-01T12:01:14Z</time></trkpt><trkpt lat="43.09075297656133" lon="0.1784230800556689"><ele>605.5</ele><time>2026-04-01T12:01:15Z</time></trkpt><trkpt lat="43.090873726695385" lon="0.17870060009153152"><ele>601.0</ele><time>2026-04-01T12:01:16Z</time></trkpt><trkpt lat="43.09099427075143" lon="0.17898008855333"><ele>599.0</ele><time>2026-04-01T12:01:17Z</time></trkpt><trkpt lat="43.091114168524655" lon="0.1792665221471107"><ele>597.0</ele><time>2026-04-01T12:01:18Z</time></trkpt><trkpt lat="43.091234676689346" lon="0.1795478825113323"><ele>543.0</ele><time>2026-04-01T12:01:19Z</time></trkpt><trkpt lat="43.093439624045146" lon="0.18873733146252042"><ele>543.0</ele><time>2026-04-01T12:02:04Z</time></trkpt><trkpt lat="43.09336991499554" lon="0.1888772428672398"><ele>543.0</ele><time>2026-04-01T12:02:05Z</time></trkpt><trkpt lat="43.09331009941988" lon="0.18902725001873433"><ele>543.0</ele><time>2026-04-01T12:02:06Z</time></trkpt><trkpt lat="43.09328187539288" lon="0.18920149015801196"><ele>543.0</ele><time>2026-04-01T12:02:07Z</time></trkpt><trkpt lat="43.09325667709767" lon="0.1893853177788598"><ele>537.0</ele><time>2026-04-01T12:02:08Z</time></trkpt><trkpt lat="43.093224674252646" lon="0.18956518849317952"><ele>531.0</ele><time>2026-04-01T12:02:09Z</time></trkpt><trkpt lat="43.09319220171022" lon="0.1897381094219275"><ele>525.0</ele><time>2026-04-01T12:02:10Z</time></trkpt><trkpt lat="43.093167275955295" lon="0.18990569618022088"><ele>519.0</ele><time>2026-04-01T12:02:11Z</time></trkpt><trkpt lat="43.09315944413549" lon="0.19007080114062921"><ele>517.5</ele><time>2026-04-01T12:02:12Z</time></trkpt><trkpt lat="43.0931794852209" lon="0.19023139778345954"><ele>516.0</ele><time>2026-04-01T12:02:13Z</time></trkpt><trkpt lat="43.0932269351428" lon="0.1903744908940061"><ele>514.5</ele><time>2026-04-01T12:02:14Z</time></trkpt><trkpt lat="43.09328902516773" lon="0.19050618935489735"><ele>513.0</ele><time>2026-04-01T12:02:15Z</time></trkpt><trkpt lat="43.093369288788736" lon="0.19062093135463415"><ele>517.0</ele><time>2026-04-01T12:02:16Z</time></trkpt><trkpt lat="43.0935457831153" lon="0.19086460967063773"><ele>521.0</ele><time>2026-04-01T12:02:18.001Z</time></trkpt><trkpt lat="43.09359135973372" lon="0.19103886764357478"><ele>525.0</ele><time>2026-04-01T12:02:19Z</time></trkpt><trkpt lat="43.09360854342851" lon="0.19113558937193567"><ele>525.0</ele><time>2026-04-01T12:02:21Z</time></trkpt><trkpt lat="43.09354739604567" lon="0.19122431396102507"><ele>525.0</ele><time>2026-04-01T12:02:22Z</time></trkpt><trkpt lat="43.09347167524299" lon="0.19130208541106664"><ele>525.0</ele><time>2026-04-01T12:02:23Z</time></trkpt><trkpt lat="43.09341600420397" lon="0.19140934296776113"><ele>525.0</ele><time>2026-04-01T12:02:24Z</time></trkpt><trkpt lat="43.09335934700831" lon="0.19151360002541729"><ele>525.0</ele><time>2026-04-01T12:02:25Z</time></trkpt><trkpt lat="43.09332514089411" lon="0.19164299434193832"><ele>521.75</ele><time>2026-04-01T12:02:26Z</time></trkpt><trkpt lat="43.0933073095576" lon="0.19179646478119092"><ele>518.5</ele><time>2026-04-01T12:02:27Z</time></trkpt><trkpt lat="43.09332566762024" lon="0.1919572978074187"><ele>515.25</ele><time>2026-04-01T12:02:28Z</time></trkpt><trkpt lat="43.09335224342174" lon="0.19211391119125645"><ele>512.0</ele><time>2026-04-01T12:02:29Z</time></trkpt><trkpt lat="43.09337942950677" lon="0.1922608486488535"><ele>510.8</ele><time>2026-04-01T12:02:30Z</time></trkpt><trkpt lat="43.09343429552484" lon="0.19240404310616707"><ele>509.6</ele><time>2026-04-01T12:02:31Z</time></trkpt><trkpt lat="43.09349863339459" lon="0.1925353279775326"><ele>508.40000000000003</ele><time>2026-04-01T12:02:32Z</time></trkpt><trkpt lat="43.09355015611457" lon="0.19265138201286916"><ele>507.20000000000005</ele><time>2026-04-01T12:02:33Z</time></trkpt><trkpt lat="43.09360365597576" lon="0.19276193587109347"><ele>506.0</ele><time>2026-04-01T12:02:34Z</time></trkpt><trkpt lat="43.09367943734039" lon="0.19288040333331902"><ele>506.0</ele><time>2026-04-01T12:02:35Z</time></trkpt><trkpt lat="43.093774590175066" lon="0.19297681757778207"><ele>506.0</ele><time>2026-04-01T12:02:36Z</time></trkpt><trkpt lat="43.09388177435706" lon="0.19303703548346848"><ele>506.0</ele><time>2026-04-01T12:02:37Z</time></trkpt></trkseg><trkseg><trkpt lat="43.121623612688005" lon="0.21434688132953"><ele>549.0</ele><time>2026-04-01T12:42:18Z</time></trkpt><trkpt lat="43.121640996415515" lon="0.2142626710395304"><ele>549.0</ele><time>2026-04-01T12:42:46Z</time></trkpt><trkpt lat="43.121499084866606" lon="0.214153663686261"><ele>549.0</ele><time>2026-04-01T12:45:48Z</time></trkpt><trkpt lat="43.121405832005266" lon="0.2140374309015859"><ele>549.0</ele><time>2026-04-01T12:45:50Z</time></trkpt><trkpt lat="43.12135652610215" lon="0.2139762333830117"><ele>549.0</ele><time>2026-04-01T12:45:51Z</time></trkpt><trkpt lat="43.12130612392352" lon="0.21390923040269166"><ele>549.1666666666666</ele><time>2026-04-01T12:45:52Z</time></trkpt><trkpt lat="43.121253433575404" lon="0.21384224713261432"><ele>549.3333333333334</ele><time>2026-04-01T12:45:53Z</time></trkpt><trkpt lat="43.121192484948516" lon="0.21376856120500115"><ele>549.5</ele><time>2026-04-01T12:45:54Z</time></trkpt><trkpt lat="43.121126628045815" lon="0.21369084032565416"><ele>549.6666666666667</ele><time>2026-04-01T12:45:55Z</time></trkpt><trkpt lat="43.121057705704196" lon="0.21361108207031823"><ele>549.8333333333334</ele><time>2026-04-01T12:45:56Z</time></trkpt><trkpt lat="43.12099838754023" lon="0.21354288379804184"><ele>550.0</ele><time>2026-04-01T12:45:57Z</time></trkpt><trkpt lat="43.12090175412521" lon="0.21343830057937066"><ele>550.0</ele><time>2026-04-01T12:45:59Z</time></trkpt><trkpt lat="43.12083909533432" lon="0.21337770803683048"><ele>550.0</ele><time>2026-04-01T12:46:00Z</time></trkpt><trkpt lat="43.120772126687896" lon="0.2133049182023011"><ele>550.0</ele><time>2026-04-01T12:46:01Z</time></trkpt><trkpt lat="43.12069658384425" lon="0.21322134458495376"><ele>550.0</ele><time>2026-04-01T12:46:02Z</time></trkpt><trkpt lat="43.12060462307505" lon="0.2131279543014094"><ele>550.0</ele><time>2026-04-01T12:46:03Z</time></trkpt><trkpt lat="43.1205011134151" lon="0.2130211360443882"><ele>550.75</ele><time>2026-04-01T12:46:04Z</time></trkpt><trkpt lat="43.12039635849747" lon="0.21291555702706585"><ele>551.5</ele><time>2026-04-01T12:46:05Z</time></trkpt><trkpt lat="43.12028781297769" lon="0.2128046705172467"><ele>552.25</ele><time>2026-04-01T12:46:06Z</time></trkpt><trkpt lat="43.120175675968824" lon="0.2126912471715787"><ele>553.0</ele><time>2026-04-01T12:46:07Z</time></trkpt><trkpt lat="43.12006129260634" lon="0.212574412795043"><ele>553.0</ele><time>2026-04-01T12:46:08Z</time></trkpt><trkpt lat="43.1199555339715" lon="0.21246122602982895"><ele>553.0</ele><time>2026-04-01T12:46:09Z</time></trkpt><trkpt lat="43.11987157036198" lon="0.21236877777644128"><ele>553.0</ele><time>2026-04-01T12:46:10Z</time></trkpt><trkpt lat="43.119810601736894" lon="0.2123022393225978"><ele>553.0</ele><time>2026-04-01T12:46:11Z</time></trkpt><trkpt lat="43.119722687668116" lon="0.21220464890062815"><ele>553.0</ele><time>2026-04-01T12:46:13Z</time></trkpt><trkpt lat="43.11961632171527" lon="0.2122628922064842"><ele>553.1666666666667</ele><time>2026-04-01T12:46:17Z</time></trkpt><trkpt lat="43.119598131350436" lon="0.21240878408878142"><ele>553.3333333333334</ele><time>2026-04-01T12:46:19Z</time></trkpt><trkpt lat="43.11958440449484" lon="0.21251071633866866"><ele>553.5</ele><time>2026-04-01T12:46:20Z</time></trkpt><trkpt lat="43.119566531357" lon="0.21262241073827579"><ele>553.6666666666666</ele><time>2026-04-01T12:46:21Z</time></trkpt><trkpt lat="43.119553344270685" lon="0.2127380810933689"><ele>553.8333333333333</ele><time>2026-04-01T12:46:22Z</time></trkpt><trkpt lat="43.119535534485536" lon="0.2128580690112244"><ele>554.0</ele><time>2026-04-01T12:46:23Z</time></trkpt><trkpt lat="43.11952064287255" lon="0.2129721810301209"><ele>554.0</ele><time>2026-04-01T12:46:24Z</time></trkpt><trkpt lat="43.11950339371619" lon="0.21308821026805844"><ele>554.0</ele><time>2026-04-01T12:46:25Z</time></trkpt><trkpt lat="43.11948611819266" lon="0.21320886384547888"><ele>554.0</ele><time>2026-04-01T12:46:26Z</time></trkpt><trkpt lat="43.119470409172514" lon="0.2133101020633357"><ele>554.0</ele><time>2026-04-01T12:46:27Z</time></trkpt><trkpt lat="43.11945602583395" lon="0.2134061382368549"><ele>554.0</ele><time>2026-04-01T12:46:28Z</time></trkpt><trkpt lat="43.11945748571632" lon="0.21353732966663896"><ele>554.0</ele><time>2026-04-01T12:46:29Z</time></trkpt><trkpt lat="43.119444327945075" lon="0.21368886209825813"><ele>552.75</ele><time>2026-04-01T12:46:30Z</time></trkpt><trkpt lat="43.11944254889459" lon="0.21385665549493008"><ele>551.5</ele><time>2026-04-01T12:46:31Z</time></trkpt><trkpt lat="43.11943230222333" lon="0.21402164898217674"><ele>550.25</ele><time>2026-04-01T12:46:32Z</time></trkpt><trkpt lat="43.11940483494988" lon="0.2141721852956016"><ele>549.0</ele><time>2026-04-01T12:46:33Z</time></trkpt><trkpt lat="43.11941529176904" lon="0.21430781485985415"><ele>548.1666666666666</ele><time>2026-04-01T12:46:34Z</time></trkpt><trkpt lat="43.11940841565153" lon="0.21439890367910322"><ele>547.3333333333334</ele><time>2026-04-01T12:46:35Z</time></trkpt><trkpt lat="43.11940292233171" lon="0.21457140234719244"><ele>546.5</ele><time>2026-04-01T12:46:37Z</time></trkpt><trkpt lat="43.11939852876866" lon="0.21466402333286294"><ele>545.6666666666667</ele><time>2026-04-01T12:46:38Z</time></trkpt><trkpt lat="43.11939255065423" lon="0.214754128733331"><ele>544.8333333333334</ele><time>2026-04-01T12:46:39Z</time></trkpt><trkpt lat="43.119383731791274" lon="0.21484210860286862"><ele>544.0</ele><time>2026-04-01T12:46:40Z</time></trkpt><trkpt lat="43.11937571668628" lon="0.21493009756549178"><ele>543.0</ele><time>2026-04-01T12:46:41Z</time></trkpt><trkpt lat="43.119369700298435" lon="0.21502058445525382"><ele>542.0</ele><time>2026-04-01T12:46:42Z</time></trkpt><trkpt lat="43.119367309516534" lon="0.21510795877475922"><ele>541.0</ele><time>2026-04-01T12:46:43Z</time></trkpt><trkpt lat="43.11936661333375" lon="0.21528248188403037"><ele>540.0</ele><time>2026-04-01T12:46:45Z</time></trkpt><trkpt lat="43.1194140816062" lon="0.21534503940010324"><ele>539.0</ele><time>2026-04-01T12:46:46Z</time></trkpt><trkpt lat="43.11944478070249" lon="0.2154777217468012"><ele>538.0</ele><time>2026-04-01T12:46:48Z</time></trkpt><trkpt lat="43.119349084807865" lon="0.21558293857946764"><ele>536.6</ele><time>2026-04-01T12:46:49Z</time></trkpt><trkpt lat="43.11934171301497" lon="0.21574516040100583"><ele>535.1999999999999</ele><time>2026-04-01T12:46:51Z</time></trkpt><trkpt lat="43.119322726365844" lon="0.21591746396577208"><ele>533.8</ele><time>2026-04-01T12:46:53Z</time></trkpt><trkpt lat="43.11931246361401" lon="0.21601359494157132"><ele>532.4</ele><time>2026-04-01T12:46:54Z</time></trkpt><trkpt lat="43.11930343203112" lon="0.21610948267314492"><ele>531.0</ele><time>2026-04-01T12:46:55Z</time></trkpt><trkpt lat="43.11929642762787" lon="0.21620314102458152"><ele>531.0</ele><time>2026-04-01T12:46:56Z</time></trkpt><trkpt lat="43.11927527615686" lon="0.21634442985716454"><ele>531.0</ele><time>2026-04-01T12:46:58Z</time></trkpt><trkpt lat="43.119248030378486" lon="0.2164797565445694"><ele>531.0</ele><time>2026-04-01T12:47:00Z</time></trkpt><trkpt lat="43.11922561042984" lon="0.21663023675861723"><ele>531.0</ele><time>2026-04-01T12:47:02Z</time></trkpt><trkpt lat="43.11920827902597" lon="0.2167693557007708"><ele>531.0</ele><time>2026-04-01T12:47:04Z</time></trkpt><trkpt lat="43.11917911861846" lon="0.2168994609110897"><ele>530.0</ele><time>2026-04-01T12:47:06Z</time></trkpt><trkpt lat="43.11916090103089" lon="0.21699865683440323"><ele>529.0</ele><time>2026-04-01T12:47:08Z</time></trkpt><trkpt lat="43.11915434459129" lon="0.21708458226206448"><ele>528.0</ele><time>2026-04-01T12:47:10Z</time></trkpt><trkpt lat="43.11914156680055" lon="0.21698949280398705"><ele>527.0</ele><time>2026-04-01T12:47:49Z</time></trkpt><trkpt lat="43.11916532323047" lon="0.21688099997497018"><ele>526.0</ele><time>2026-04-01T12:47:53Z</time></trkpt><trkpt lat="43.119189688061375" lon="0.21678468374395907"><ele>525.0</ele><time>2026-04-01T12:47:56Z</time></trkpt><trkpt lat="43.11920768149641" lon="0.2166993278859857"><ele>524.0</ele><time>2026-04-01T12:48:03Z</time></trkpt><trkpt lat="43.11922123898352" lon="0.2165970798539873"><ele>524.0</ele><time>2026-04-01T12:49:15Z</time></trkpt><trkpt lat="43.119227328457214" lon="0.21649363217058856"><ele>524.0</ele><time>2026-04-01T12:49:17Z</time></trkpt><trkpt lat="43.11924275041851" lon="0.21640542948030317"><ele>524.0</ele><time>2026-04-01T12:49:19Z</time></trkpt><trkpt lat="43.119265232145544" lon="0.21632309531358362"><ele>524.0</ele><time>2026-04-01T12:49:21Z</time></trkpt><trkpt lat="43.11928552192996" lon="0.21623673091677587"><ele>524.0</ele><time>2026-04-01T12:49:23Z</time></trkpt><trkpt lat="43.1193069646226" lon="0.21614700727268962"><ele>524.0</ele><time>2026-04-01T12:49:25Z</time></trkpt><trkpt lat="43.11931643440813" lon="0.21605522551531098"><ele>524.0</ele><time>2026-04-01T12:49:27Z</time></trkpt><trkpt lat="43.119324056242" lon="0.21595968549617306"><ele>525.1666666666666</ele><time>2026-04-01T12:49:29Z</time></trkpt><trkpt lat="43.119336393114416" lon="0.2158694508794802"><ele>526.3333333333333</ele><time>2026-04-01T12:49:31Z</time></trkpt><trkpt lat="43.11934826287064" lon="0.2157398798345588"><ele>527.5</ele><time>2026-04-01T12:49:34Z</time></trkpt><trkpt lat="43.11936014132146" lon="0.2156322389459656"><ele>528.6666666666666</ele><time>2026-04-01T12:49:36Z</time></trkpt><trkpt lat="43.11936430649415" lon="0.21551726642651006"><ele>529.8333333333334</ele><time>2026-04-01T12:49:38Z</time></trkpt><trkpt lat="43.11936763649339" lon="0.21542597795493787"><ele>531.0</ele><time>2026-04-01T12:49:40Z</time></trkpt><trkpt lat="43.11937385623166" lon="0.2153370000650996"><ele>532.4</ele><time>2026-04-01T12:49:42Z</time></trkpt><trkpt lat="43.119383073901055" lon="0.21524052892801251"><ele>533.8</ele><time>2026-04-01T12:49:44Z</time></trkpt><trkpt lat="43.119388848800234" lon="0.21512048744966042"><ele>535.1999999999999</ele><time>2026-04-01T12:49:46Z</time></trkpt><trkpt lat="43.119375607760794" lon="0.21498158154945243"><ele>536.6</ele><time>2026-04-01T12:49:49Z</time></trkpt><trkpt lat="43.119374562689806" lon="0.21485112273713344"><ele>538.0</ele><time>2026-04-01T12:51:52Z</time></trkpt><trkpt lat="43.119387683999996" lon="0.21468456444780865"><ele>539.0</ele><time>2026-04-01T12:51:54Z</time></trkpt><trkpt lat="43.119425779827644" lon="0.2145246968436276"><ele>540.0</ele><time>2026-04-01T12:51:56Z</time></trkpt><trkpt lat="43.11942845254201" lon="0.21443346003989755"><ele>541.0</ele><time>2026-04-01T12:51:58Z</time></trkpt><trkpt lat="43.11943196649637" lon="0.21431350634756224"><ele>542.0</ele><time>2026-04-01T12:52:00Z</time></trkpt><trkpt lat="43.11943526329484" lon="0.2142273494065927"><ele>543.0</ele><time>2026-04-01T12:52:01Z</time></trkpt><trkpt lat="43.119440786402855" lon="0.2141378515922823"><ele>544.0</ele><time>2026-04-01T12:52:02Z</time></trkpt><trkpt lat="43.11943330303603" lon="0.21402386977420232"><ele>544.8333333333334</ele><time>2026-04-01T12:52:03Z</time></trkpt><trkpt lat="43.119457272088205" lon="0.21390871446352336"><ele>545.6666666666667</ele><time>2026-04-01T12:52:04Z</time></trkpt><trkpt lat="43.11946320802874" lon="0.2137936783285042"><ele>546.5</ele><time>2026-04-01T12:52:05Z</time></trkpt><trkpt lat="43.11945360797282" lon="0.21368755926019664"><ele>547.3333333333334</ele><time>2026-04-01T12:52:06Z</time></trkpt><trkpt lat="43.11946207474059" lon="0.21360136930421567"><ele>548.1666666666666</ele><time>2026-04-01T12:52:07Z</time></trkpt><trkpt lat="43.119478821963874" lon="0.2134910865660713"><ele>549.0</ele><time>2026-04-01T12:52:09Z</time></trkpt><trkpt lat="43.11934457320859" lon="0.21345717395448574"><ele>549.0</ele><time>2026-04-01T12:52:12Z</time></trkpt><trkpt lat="43.119234260497656" lon="0.2134810886157649"><ele>549.0</ele><time>2026-04-01T12:52:14Z</time></trkpt><trkpt lat="43.11912382935594" lon="0.21352409125400196"><ele>549.0</ele><time>2026-04-01T12:52:16Z</time></trkpt><trkpt lat="43.11906291438788" lon="0.21354868162782653"><ele>549.0</ele><time>2026-04-01T12:52:17Z</time></trkpt><trkpt lat="43.118970228787994" lon="0.21364158225996577"><ele>549.0</ele><time>2026-04-01T12:52:19Z</time></trkpt><trkpt lat="43.118897712168184" lon="0.2137424146248025"><ele>548.4</ele><time>2026-04-01T12:52:21Z</time></trkpt><trkpt lat="43.118817040394944" lon="0.21384155089827908"><ele>547.8</ele><time>2026-04-01T12:52:23Z</time></trkpt><trkpt lat="43.11874543588433" lon="0.2138894799638051"><ele>547.2</ele><time>2026-04-01T12:52:24Z</time></trkpt><trkpt lat="43.1186814959066" lon="0.21398096608498623"><ele>546.6</ele><time>2026-04-01T12:52:25Z</time></trkpt><trkpt lat="43.118608617110695" lon="0.21404360967090394"><ele>546.0</ele><time>2026-04-01T12:52:26Z</time></trkpt><trkpt lat="43.11853207247093" lon="0.21410688323630536"><ele>544.4</ele><time>2026-04-01T12:52:27Z</time></trkpt><trkpt lat="43.11843674146171" lon="0.2141834267615045"><ele>542.8</ele><time>2026-04-01T12:52:28Z</time></trkpt><trkpt lat="43.11834213905021" lon="0.21425737929688302"><ele>541.1999999999999</ele><time>2026-04-01T12:52:29Z</time></trkpt><trkpt lat="43.11825083548647" lon="0.21433338006792896"><ele>539.6</ele><time>2026-04-01T12:52:30Z</time></trkpt><trkpt lat="43.11816622121193" lon="0.21441601156302206"><ele>538.0</ele><time>2026-04-01T12:52:31Z</time></trkpt><trkpt lat="43.11808633896648" lon="0.2145019144437393"><ele>537.1999999999999</ele><time>2026-04-01T12:52:32Z</time></trkpt><trkpt lat="43.118005866374034" lon="0.21459343114901175"><ele>536.4</ele><time>2026-04-01T12:52:33Z</time></trkpt><trkpt lat="43.11792210654007" lon="0.21468705385459896"><ele>535.5999999999999</ele><time>2026-04-01T12:52:34Z</time></trkpt><trkpt lat="43.11783496831826" lon="0.2147812582503977"><ele>534.8</ele><time>2026-04-01T12:52:35Z</time></trkpt><trkpt lat="43.11775231190612" lon="0.21486769116148843"><ele>534.0</ele><time>2026-04-01T12:52:36Z</time></trkpt><trkpt lat="43.117672833680125" lon="0.21495084811183737"><ele>533.3333333333334</ele><time>2026-04-01T12:52:37Z</time></trkpt><trkpt lat="43.11758563898369" lon="0.2150067220170072"><ele>532.6666666666666</ele><time>2026-04-01T12:52:38Z</time></trkpt><trkpt lat="43.11751281441497" lon="0.21506171467144589"><ele>532.0</ele><time>2026-04-01T12:52:39Z</time></trkpt><trkpt lat="43.117447286808535" lon="0.2151172502611712"><ele>531.3333333333333</ele><time>2026-04-01T12:52:40Z</time></trkpt><trkpt lat="43.11738821354341" lon="0.2151655209912883"><ele>530.6666666666666</ele><time>2026-04-01T12:52:41Z</time></trkpt><trkpt lat="43.117283498686966" lon="0.21521861831156475"><ele>530.0</ele><time>2026-04-01T12:52:43Z</time></trkpt><trkpt lat="43.11716578074067" lon="0.21522105446215528"><ele>529.6</ele><time>2026-04-01T12:52:45Z</time></trkpt><trkpt lat="43.11710216770206" lon="0.21521650509604878"><ele>529.2</ele><time>2026-04-01T12:52:46Z</time></trkpt><trkpt lat="43.11697773251249" lon="0.2151990985785141"><ele>528.8</ele><time>2026-04-01T12:52:48Z</time></trkpt><trkpt lat="43.11687778723391" lon="0.21519223177474436"><ele>528.4</ele><time>2026-04-01T12:52:50Z</time></trkpt><trkpt lat="43.1167990178844" lon="0.21526768609224664"><ele>528.0</ele><time>2026-04-01T12:52:52Z</time></trkpt><trkpt lat="43.11676496005609" lon="0.21538431038583497"><ele>528.0</ele><time>2026-04-01T12:52:54Z</time></trkpt><trkpt lat="43.11676583112098" lon="0.21558003808975393"><ele>528.0</ele><time>2026-04-01T12:52:56Z</time></trkpt><trkpt lat="43.116777047419596" lon="0.21570843285675753"><ele>528.0</ele><time>2026-04-01T12:52:57Z</time></trkpt><trkpt lat="43.116786904279465" lon="0.2158488145006908"><ele>528.0</ele><time>2026-04-01T12:52:58Z</time></trkpt><trkpt lat="43.11678089713738" lon="0.215974359492748"><ele>528.0</ele><time>2026-04-01T12:52:59Z</time></trkpt><trkpt lat="43.11677032820436" lon="0.21607354890104286"><ele>528.0</ele><time>2026-04-01T12:53:00Z</time></trkpt><trkpt lat="43.116741264597174" lon="0.21615348883997812"><ele>528.0</ele><time>2026-04-01T12:53:01Z</time></trkpt><trkpt lat="43.116677134224254" lon="0.2161916667999208"><ele>528.0</ele><time>2026-04-01T12:53:02Z</time></trkpt><trkpt lat="43.116584980129225" lon="0.2162803232618672"><ele>528.0</ele><time>2026-04-01T12:53:04Z</time></trkpt><trkpt lat="43.11648240189927" lon="0.21637246345492664"><ele>528.0</ele><time>2026-04-01T12:53:06Z</time></trkpt><trkpt lat="43.1164165401753" lon="0.21643153245735292"><ele>528.0</ele><time>2026-04-01T12:53:07Z</time></trkpt><trkpt lat="43.11634585331833" lon="0.21649481701275683"><ele>529.8</ele><time>2026-04-01T12:53:08Z</time></trkpt><trkpt lat="43.116268303186544" lon="0.21656424613570893"><ele>531.5999999999999</ele><time>2026-04-01T12:53:09Z</time></trkpt><trkpt lat="43.116186323621946" lon="0.21663764079814943"><ele>533.4000000000001</ele><time>2026-04-01T12:53:10Z</time></trkpt><trkpt lat="43.11609780694935" lon="0.21671546515694848"><ele>535.2</ele><time>2026-04-01T12:53:11Z</time></trkpt><trkpt lat="43.11600589880574" lon="0.21679539442149567"><ele>537.0</ele><time>2026-04-01T12:53:12Z</time></trkpt><trkpt lat="43.11591136172452" lon="0.21687565405383638"><ele>537.0</ele><time>2026-04-01T12:53:13Z</time></trkpt><trkpt lat="43.11581817012332" lon="0.21695477140504188"><ele>537.0</ele><time>2026-04-01T12:53:14Z</time></trkpt><trkpt lat="43.11572498380402" lon="0.21703450450415473"><ele>537.0</ele><time>2026-04-01T12:53:15Z</time></trkpt><trkpt lat="43.11563371154804" lon="0.2171144193417069"><ele>537.0</ele><time>2026-04-01T12:53:16Z</time></trkpt><trkpt lat="43.115560121225364" lon="0.21720081772370528"><ele>537.0</ele><time>2026-04-01T12:53:17Z</time></trkpt><trkpt lat="43.11547664514427" lon="0.21727304914932447"><ele>537.8333333333334</ele><time>2026-04-01T12:53:18Z</time></trkpt><trkpt lat="43.11539492796685" lon="0.2173471081224547"><ele>538.6666666666666</ele><time>2026-04-01T12:53:19Z</time></trkpt><trkpt lat="43.115312834196615" lon="0.21741966027610984"><ele>539.5</ele><time>2026-04-01T12:53:20Z</time></trkpt><trkpt lat="43.11522970245999" lon="0.21749274101188174"><ele>540.3333333333333</ele><time>2026-04-01T12:53:21Z</time></trkpt><trkpt lat="43.11515429296546" lon="0.21755461941798784"><ele>541.1666666666666</ele><time>2026-04-01T12:53:22Z</time></trkpt><trkpt lat="43.1150968196244" lon="0.21759968688563752"><ele>542.0</ele><time>2026-04-01T12:53:23Z</time></trkpt><trkpt lat="43.11503093663636" lon="0.21764834693864782"><ele>542.0</ele><time>2026-04-01T12:53:25Z</time></trkpt><trkpt lat="43.11495906238245" lon="0.21769521539224773"><ele>542.0</ele><time>2026-04-01T12:53:27Z</time></trkpt><trkpt lat="43.11489679900228" lon="0.21775520392371417"><ele>542.0</ele><time>2026-04-01T12:53:28Z</time></trkpt><trkpt lat="43.11482268232242" lon="0.2178312889181191"><ele>542.0</ele><time>2026-04-01T12:53:29Z</time></trkpt><trkpt lat="43.11472819210005" lon="0.2179000048381152"><ele>542.0</ele><time>2026-04-01T12:53:30Z</time></trkpt><trkpt lat="43.1146467829945" lon="0.21798850267458936"><ele>542.0</ele><time>2026-04-01T12:53:31Z</time></trkpt><trkpt lat="43.11457368525364" lon="0.21810186624392597"><ele>542.0</ele><time>2026-04-01T12:53:32Z</time></trkpt><trkpt lat="43.11449716312577" lon="0.2181919244712892"><ele>542.0</ele><time>2026-04-01T12:53:33Z</time></trkpt><trkpt lat="43.1144254329168" lon="0.21828257462189285"><ele>542.0</ele><time>2026-04-01T12:53:34Z</time></trkpt><trkpt lat="43.114353989196125" lon="0.21836999073854063"><ele>542.0</ele><time>2026-04-01T12:53:35Z</time></trkpt><trkpt lat="43.11428592879395" lon="0.21844947747620785"><ele>541.6</ele><time>2026-04-01T12:53:36Z</time></trkpt><trkpt lat="43.11422441287441" lon="0.2185157742331863"><ele>541.2</ele><time>2026-04-01T12:53:37Z</time></trkpt><trkpt lat="43.114168339650426" lon="0.21859262098939866"><ele>540.8</ele><time>2026-04-01T12:53:38Z</time></trkpt><trkpt lat="43.11411795437587" lon="0.2186564591080397"><ele>540.4</ele><time>2026-04-01T12:53:39Z</time></trkpt><trkpt lat="43.114033120553174" lon="0.21877313693732378"><ele>540.0</ele><time>2026-04-01T12:53:41Z</time></trkpt><trkpt lat="43.113937750004915" lon="0.2189021832700567"><ele>538.2</ele><time>2026-04-01T12:53:43Z</time></trkpt><trkpt lat="43.11389182261975" lon="0.2189699519809649"><ele>536.4</ele><time>2026-04-01T12:53:44Z</time></trkpt><trkpt lat="43.11380960760525" lon="0.21908170694059612"><ele>534.6</ele><time>2026-04-01T12:53:46Z</time></trkpt><trkpt lat="43.11372064354761" lon="0.219155052413971"><ele>532.8</ele><time>2026-04-01T12:53:48Z</time></trkpt><trkpt lat="43.11362047206039" lon="0.2192155737162786"><ele>531.0</ele><time>2026-04-01T12:53:50Z</time></trkpt><trkpt lat="43.1135444097629" lon="0.21927542490971424"><ele>530.0</ele><time>2026-04-01T12:53:52Z</time></trkpt><trkpt lat="43.11347173021959" lon="0.21931330763816398"><ele>529.0</ele><time>2026-04-01T12:53:54Z</time></trkpt><trkpt lat="43.1134219116382" lon="0.21938650204075696"><ele>528.0</ele><time>2026-04-01T12:53:59Z</time></trkpt><trkpt lat="43.113514861572376" lon="0.21950276244857328"><ele>527.0</ele><time>2026-04-01T12:54:00Z</time></trkpt><trkpt lat="43.113618479985504" lon="0.21954132665601758"><ele>526.0</ele><time>2026-04-01T12:54:01Z</time></trkpt><trkpt lat="43.11372918824767" lon="0.21959452342451335"><ele>526.0</ele><time>2026-04-01T12:54:02Z</time></trkpt><trkpt lat="43.11384514763179" lon="0.21965366210910925"><ele>526.0</ele><time>2026-04-01T12:54:03Z</time></trkpt><trkpt lat="43.11397246748925" lon="0.21973805343656563"><ele>526.0</ele><time>2026-04-01T12:54:04Z</time></trkpt><trkpt lat="43.114095122793984" lon="0.21983694112030341"><ele>526.0</ele><time>2026-04-01T12:54:05Z</time></trkpt><trkpt lat="43.11422105002156" lon="0.21994845482027206"><ele>524.0</ele><time>2026-04-01T12:54:06Z</time></trkpt><trkpt lat="43.11434703814137" lon="0.22006873333238114"><ele>522.0</ele><time>2026-04-01T12:54:07Z</time></trkpt><trkpt lat="43.114469692439904" lon="0.22019668695796177"><ele>520.0</ele><time>2026-04-01T12:54:08Z</time></trkpt><trkpt lat="43.11458565519237" lon="0.22033070101674926"><ele>520.0</ele><time>2026-04-01T12:54:09Z</time></trkpt><trkpt lat="43.1146934340976" lon="0.22047588037164784"><ele>520.0</ele><time>2026-04-01T12:54:10Z</time></trkpt><trkpt lat="43.11478975353036" lon="0.22062508206711245"><ele>520.0</ele><time>2026-04-01T12:54:11Z</time></trkpt><trkpt lat="43.114861567336064" lon="0.2207878634269375"><ele>520.0</ele><time>2026-04-01T12:54:12Z</time></trkpt><trkpt lat="43.11492166744519" lon="0.22095375807173237"><ele>520.75</ele><time>2026-04-01T12:54:13Z</time></trkpt><trkpt lat="43.1149731104794" lon="0.2211178886957958"><ele>521.5</ele><time>2026-04-01T12:54:14Z</time></trkpt><trkpt lat="43.11502547681026" lon="0.2212697419664647"><ele>522.25</ele><time>2026-04-01T12:54:15Z</time></trkpt><trkpt lat="43.11508974953652" lon="0.2213961876335018"><ele>523.0</ele><time>2026-04-01T12:54:16Z</time></trkpt><trkpt lat="43.115164422638784" lon="0.22150518566630273"><ele>520.8</ele><time>2026-04-01T12:54:17Z</time></trkpt><trkpt lat="43.11524153132353" lon="0.221596055073509"><ele>518.5999999999999</ele><time>2026-04-01T12:54:18Z</time></trkpt><trkpt lat="43.11531356243436" lon="0.22167881376907014"><ele>516.4000000000001</ele><time>2026-04-01T12:54:19Z</time></trkpt><trkpt lat="43.11538724590509" lon="0.2217601890376731"><ele>514.2</ele><time>2026-04-01T12:54:20Z</time></trkpt><trkpt lat="43.115472084882065" lon="0.22185467796008165"><ele>512.0</ele><time>2026-04-01T12:54:21Z</time></trkpt><trkpt lat="43.11555989701608" lon="0.22195324046049625"><ele>512.0</ele><time>2026-04-01T12:54:22Z</time></trkpt><trkpt lat="43.11564783208082" lon="0.22206205429808573"><ele>512.0</ele><time>2026-04-01T12:54:23Z</time></trkpt><trkpt lat="43.11572800602831" lon="0.22217648338298163"><ele>512.0</ele><time>2026-04-01T12:54:24Z</time></trkpt><trkpt lat="43.1158001084173" lon="0.22229750241312388"><ele>512.0</ele><time>2026-04-01T12:54:25Z</time></trkpt><trkpt lat="43.115851770905316" lon="0.22243525719610588"><ele>513.0</ele><time>2026-04-01T12:54:26Z</time></trkpt><trkpt lat="43.11587943551623" lon="0.22258524091253676"><ele>514.0</ele><time>2026-04-01T12:54:27Z</time></trkpt><trkpt lat="43.11588463185078" lon="0.2227392810831576"><ele>515.0</ele><time>2026-04-01T12:54:28Z</time></trkpt><trkpt lat="43.11586742527076" lon="0.22289176185401272"><ele>516.0</ele><time>2026-04-01T12:54:29Z</time></trkpt><trkpt lat="43.11583086326551" lon="0.22303813735222103"><ele>516.0</ele><time>2026-04-01T12:54:30Z</time></trkpt><trkpt lat="43.11578018701027" lon="0.22317759733646095"><ele>516.0</ele><time>2026-04-01T12:54:31Z</time></trkpt><trkpt lat="43.11572216306686" lon="0.22331233202708517"><ele>516.0</ele><time>2026-04-01T12:54:32Z</time></trkpt><trkpt lat="43.11565823935815" lon="0.22344527468113984"><ele>516.0</ele><time>2026-04-01T12:54:33Z</time></trkpt><trkpt lat="43.11559056735777" lon="0.22357920609616336"><ele>511.5</ele><time>2026-04-01T12:54:34Z</time></trkpt><trkpt lat="43.11552016911112" lon="0.22371271671714898"><ele>507.0</ele><time>2026-04-01T12:54:35Z</time></trkpt><trkpt lat="43.11545890280078" lon="0.22385251562455455"><ele>502.5</ele><time>2026-04-01T12:54:36Z</time></trkpt><trkpt lat="43.11540484633017" lon="0.22399791035227876"><ele>498.0</ele><time>2026-04-01T12:54:37Z</time></trkpt><trkpt lat="43.11535833032257" lon="0.22417584157559045"><ele>498.0</ele><time>2026-04-01T12:54:38Z</time></trkpt><trkpt lat="43.115320901248616" lon="0.22435077627184616"><ele>498.0</ele><time>2026-04-01T12:54:39Z</time></trkpt><trkpt lat="43.11528912872639" lon="0.22453118445039105"><ele>498.0</ele><time>2026-04-01T12:54:40Z</time></trkpt><trkpt lat="43.11526773251339" lon="0.22472286250686724"><ele>498.0</ele><time>2026-04-01T12:54:41Z</time></trkpt><trkpt lat="43.11525014018955" lon="0.22491940345637376"><ele>499.33333333333337</ele><time>2026-04-01T12:54:42Z</time></trkpt><trkpt lat="43.115233057707115" lon="0.2251231066371031"><ele>500.6666666666667</ele><time>2026-04-01T12:54:43Z</time></trkpt><trkpt lat="43.115219545452916" lon="0.22532837943642706"><ele>502.0</ele><time>2026-04-01T12:54:44Z</time></trkpt><trkpt lat="43.11520730684491" lon="0.22553552482188052"><ele>502.75</ele><time>2026-04-01T12:54:45Z</time></trkpt><trkpt lat="43.11520040696833" lon="0.22573758456149828"><ele>503.5</ele><time>2026-04-01T12:54:46Z</time></trkpt><trkpt lat="43.11520331945345" lon="0.2259206844330766"><ele>504.25</ele><time>2026-04-01T12:54:47Z</time></trkpt><trkpt lat="43.115212653978084" lon="0.226096198181848"><ele>505.0</ele><time>2026-04-01T12:54:48Z</time></trkpt><trkpt lat="43.11523041317999" lon="0.22626275602411802"><ele>505.0</ele><time>2026-04-01T12:54:49Z</time></trkpt><trkpt lat="43.11524718768854" lon="0.22642431933571733"><ele>505.0</ele><time>2026-04-01T12:54:50Z</time></trkpt><trkpt lat="43.1152454206384" lon="0.2265930565617439"><ele>505.0</ele><time>2026-04-01T12:54:51Z</time></trkpt><trkpt lat="43.11521143193948" lon="0.22676748492052912"><ele>505.0</ele><time>2026-04-01T12:54:52Z</time></trkpt><trkpt lat="43.115199604493185" lon="0.22696037972097985"><ele>504.6666666666667</ele><time>2026-04-01T12:54:53Z</time></trkpt><trkpt lat="43.11516198910934" lon="0.22715811054356772"><ele>504.33333333333337</ele><time>2026-04-01T12:54:54Z</time></trkpt><trkpt lat="43.115127033266425" lon="0.2273650945423354"><ele>504.0</ele><time>2026-04-01T12:54:55Z</time></trkpt><trkpt lat="43.115085919325956" lon="0.22757938386824886"><ele>504.0</ele><time>2026-04-01T12:54:56Z</time></trkpt><trkpt lat="43.1150401095216" lon="0.22780033097075184"><ele>504.0</ele><time>2026-04-01T12:54:57Z</time></trkpt><trkpt lat="43.114991517485166" lon="0.22801171326132127"><ele>504.0</ele><time>2026-04-01T12:54:58Z</time></trkpt><trkpt lat="43.11494530981757" lon="0.22819777967356186"><ele>499.0</ele><time>2026-04-01T12:54:59Z</time></trkpt><trkpt lat="43.11489258997124" lon="0.22836237705960685"><ele>494.0</ele><time>2026-04-01T12:55:00Z</time></trkpt><trkpt lat="43.114848495935625" lon="0.2285261932534566"><ele>489.0</ele><time>2026-04-01T12:55:01Z</time></trkpt><trkpt lat="43.11481025576269" lon="0.22868372932553516"><ele>484.0</ele><time>2026-04-01T12:55:02Z</time></trkpt><trkpt lat="43.11478470468709" lon="0.228837464474035"><ele>484.2</ele><time>2026-04-01T12:55:03Z</time></trkpt><trkpt lat="43.11478412015572" lon="0.22898783339913428"><ele>484.4</ele><time>2026-04-01T12:55:04Z</time></trkpt><trkpt lat="43.114805610961234" lon="0.229135643277785"><ele>484.6</ele><time>2026-04-01T12:55:05Z</time></trkpt><trkpt lat="43.1148440521605" lon="0.2292694088323967"><ele>484.8</ele><time>2026-04-01T12:55:06Z</time></trkpt><trkpt lat="43.11490007564808" lon="0.22938071573824273"><ele>485.0</ele><time>2026-04-01T12:55:07Z</time></trkpt><trkpt lat="43.114979514750054" lon="0.2294563780206394"><ele>488.2</ele><time>2026-04-01T12:55:08Z</time></trkpt><trkpt lat="43.115075364039456" lon="0.22948096749392108"><ele>491.4</ele><time>2026-04-01T12:55:09Z</time></trkpt><trkpt lat="43.11517735498678" lon="0.22945578124829286"><ele>494.6</ele><time>2026-04-01T12:55:10Z</time></trkpt><trkpt lat="43.11527416556664" lon="0.22938726265204165"><ele>497.8</ele><time>2026-04-01T12:55:11Z</time></trkpt><trkpt lat="43.11537131998755" lon="0.22929486229666204"><ele>501.0</ele><time>2026-04-01T12:55:12Z</time></trkpt><trkpt lat="43.1154822005639" lon="0.2292050199726397"><ele>501.0</ele><time>2026-04-01T12:55:13Z</time></trkpt><trkpt lat="43.11560146696068" lon="0.22914890152722198"><ele>501.0</ele><time>2026-04-01T12:55:14Z</time></trkpt><trkpt lat="43.1157283446274" lon="0.2291552529100726"><ele>501.0</ele><time>2026-04-01T12:55:15Z</time></trkpt><trkpt lat="43.115851947177724" lon="0.22915116694922583"><ele>501.0</ele><time>2026-04-01T12:55:16Z</time></trkpt><trkpt lat="43.115976979485914" lon="0.22913471259314408"><ele>501.0</ele><time>2026-04-01T12:55:17Z</time></trkpt><trkpt lat="43.11609632700057" lon="0.22915893683087019"><ele>501.0</ele><time>2026-04-01T12:55:18Z</time></trkpt><trkpt lat="43.11620362454467" lon="0.2291936779144613"><ele>501.0</ele><time>2026-04-01T12:55:19Z</time></trkpt><trkpt lat="43.11629341048648" lon="0.22923626890801718"><ele>501.0</ele><time>2026-04-01T12:55:20Z</time></trkpt><trkpt lat="43.11636724168359" lon="0.22927808908867814"><ele>501.0</ele><time>2026-04-01T12:55:21Z</time></trkpt><trkpt lat="43.1164287715013" lon="0.22931327222431414"><ele>501.0</ele><time>2026-04-01T12:55:22Z</time></trkpt><trkpt lat="43.1165159029289" lon="0.22933243614903223"><ele>501.0</ele><time>2026-04-01T12:55:24Z</time></trkpt><trkpt lat="43.11658020084032" lon="0.2293308874717941"><ele>501.0</ele><time>2026-04-01T12:59:11Z</time></trkpt><trkpt lat="43.11663768035895" lon="0.22928579479595845"><ele>501.0</ele><time>2026-04-01T12:59:13Z</time></trkpt><trkpt lat="43.116751641657906" lon="0.22917206998400635"><ele>501.0</ele><time>2026-04-01T12:59:15Z</time></trkpt><trkpt lat="43.116852420074494" lon="0.22910479317237306"><ele>500.8</ele><time>2026-04-01T12:59:17Z</time></trkpt><trkpt lat="43.11697838125546" lon="0.2291045950006714"><ele>500.6</ele><time>2026-04-01T12:59:19Z</time></trkpt><trkpt lat="43.11704611815077" lon="0.22913449965540855"><ele>500.4</ele><time>2026-04-01T12:59:20Z</time></trkpt><trkpt lat="43.117109572149154" lon="0.22918694508532925"><ele>500.2</ele><time>2026-04-01T12:59:21Z</time></trkpt><trkpt lat="43.11717878245427" lon="0.22925445979293463"><ele>500.0</ele><time>2026-04-01T12:59:22Z</time></trkpt><trkpt lat="43.11724944302432" lon="0.2293527371495772"><ele>500.0</ele><time>2026-04-01T12:59:23Z</time></trkpt><trkpt lat="43.11731972643894" lon="0.22946336553936"><ele>500.0</ele><time>2026-04-01T12:59:24Z</time></trkpt><trkpt lat="43.11737004796019" lon="0.22954336962110508"><ele>500.0</ele><time>2026-04-01T12:59:25Z</time></trkpt><trkpt lat="43.11743016247386" lon="0.22965865086895076"><ele>500.0</ele><time>2026-04-01T12:59:26Z</time></trkpt><trkpt lat="43.117495588867975" lon="0.22978434585062724"><ele>500.0</ele><time>2026-04-01T12:59:27Z</time></trkpt><trkpt lat="43.11755967026907" lon="0.2299173345121289"><ele>498.0</ele><time>2026-04-01T12:59:28Z</time></trkpt><trkpt lat="43.11762088311408" lon="0.23006495469996252"><ele>496.0</ele><time>2026-04-01T12:59:29Z</time></trkpt><trkpt lat="43.117684241623195" lon="0.230221750356489"><ele>494.0</ele><time>2026-04-01T12:59:30Z</time></trkpt><trkpt lat="43.11774365055207" lon="0.23038446899655177"><ele>492.0</ele><time>2026-04-01T12:59:31Z</time></trkpt><trkpt lat="43.117794163570785" lon="0.23053702938373416"><ele>491.0</ele><time>2026-04-01T12:59:32Z</time></trkpt><trkpt lat="43.11783506135561" lon="0.23067862896458163"><ele>490.00000000000006</ele><time>2026-04-01T12:59:33Z</time></trkpt><trkpt lat="43.117869556710325" lon="0.23081722633844726"><ele>489.00000000000006</ele><time>2026-04-01T12:59:34Z</time></trkpt><trkpt lat="43.11789208960464" lon="0.23095001407004856"><ele>488.0</ele><time>2026-04-01T12:59:35Z</time></trkpt><trkpt lat="43.11789295233757" lon="0.23108007744624492"><ele>487.0</ele><time>2026-04-01T12:59:36Z</time></trkpt><trkpt lat="43.11786838244349" lon="0.23120406074311772"><ele>487.0</ele><time>2026-04-01T12:59:37Z</time></trkpt><trkpt lat="43.11780289729608" lon="0.23131605083305043"><ele>487.00000000000006</ele><time>2026-04-01T12:59:38Z</time></trkpt><trkpt lat="43.117740731605274" lon="0.2314386627060563"><ele>487.00000000000006</ele><time>2026-04-01T12:59:39Z</time></trkpt><trkpt lat="43.11768966852171" lon="0.2315815319257257"><ele>487.0</ele><time>2026-04-01T12:59:40Z</time></trkpt><trkpt lat="43.11763398693953" lon="0.23172624850230567"><ele>487.0</ele><time>2026-04-01T12:59:41Z</time></trkpt><trkpt lat="43.11759464539221" lon="0.23189819768966966"><ele>486.25</ele><time>2026-04-01T12:59:42Z</time></trkpt><trkpt lat="43.117584516645834" lon="0.23208352239775334"><ele>485.5</ele><time>2026-04-01T12:59:43Z</time></trkpt><trkpt lat="43.11759323802685" lon="0.23227190269161943"><ele>484.75</ele><time>2026-04-01T12:59:44Z</time></trkpt><trkpt lat="43.117604727946976" lon="0.232463977945041"><ele>484.0</ele><time>2026-04-01T12:59:45Z</time></trkpt><trkpt lat="43.11761499612722" lon="0.23265488347183322"><ele>483.0</ele><time>2026-04-01T12:59:46Z</time></trkpt><trkpt lat="43.117636408782886" lon="0.232842520442278"><ele>482.0</ele><time>2026-04-01T12:59:47Z</time></trkpt><trkpt lat="43.11767372090604" lon="0.2330303328017781"><ele>481.0</ele><time>2026-04-01T12:59:48Z</time></trkpt><trkpt lat="43.11770830506964" lon="0.23321174187155297"><ele>480.0</ele><time>2026-04-01T12:59:49Z</time></trkpt><trkpt lat="43.11772598878403" lon="0.23339038098288864"><ele>478.5</ele><time>2026-04-01T12:59:50Z</time></trkpt><trkpt lat="43.117717418915454" lon="0.23356457819571524"><ele>477.0</ele><time>2026-04-01T12:59:51Z</time></trkpt><trkpt lat="43.11766513600983" lon="0.2337220689052779"><ele>475.5</ele><time>2026-04-01T12:59:52Z</time></trkpt><trkpt lat="43.11761441675952" lon="0.23388155724870327"><ele>474.0</ele><time>2026-04-01T12:59:53Z</time></trkpt><trkpt lat="43.11755142914467" lon="0.2340359540991194"><ele>474.0</ele><time>2026-04-01T12:59:54Z</time></trkpt><trkpt lat="43.117492308177695" lon="0.23419661475760006"><ele>474.0</ele><time>2026-04-01T12:59:55Z</time></trkpt><trkpt lat="43.117461422416696" lon="0.2343668090618034"><ele>474.0</ele><time>2026-04-01T12:59:56Z</time></trkpt><trkpt lat="43.117431470376886" lon="0.23452189046319488"><ele>474.0</ele><time>2026-04-01T12:59:57Z</time></trkpt><trkpt lat="43.11741881297996" lon="0.23467625280052448"><ele>475.0</ele><time>2026-04-01T12:59:58Z</time></trkpt><trkpt lat="43.11740879937273" lon="0.2348083537669204"><ele>476.0</ele><time>2026-04-01T12:59:59Z</time></trkpt><trkpt lat="43.1173781344806" lon="0.23492928874974506"><ele>477.0</ele><time>2026-04-01T13:00:00Z</time></trkpt><trkpt lat="43.11729770161749" lon="0.2350006302894302"><ele>478.0</ele><time>2026-04-01T13:00:01Z</time></trkpt><trkpt lat="43.11721386333227" lon="0.23505231826484674"><ele>479.0</ele><time>2026-04-01T13:00:02Z</time></trkpt><trkpt lat="43.117117275255325" lon="0.23505631609697328"><ele>474.75</ele><time>2026-04-01T13:00:03Z</time></trkpt><trkpt lat="43.11699984735466" lon="0.23505921404737473"><ele>470.5</ele><time>2026-04-01T13:00:04Z</time></trkpt><trkpt lat="43.11687650080353" lon="0.23506018385937655"><ele>466.25</ele><time>2026-04-01T13:00:05Z</time></trkpt><trkpt lat="43.11674565463872" lon="0.23506049412825558"><ele>462.0</ele><time>2026-04-01T13:00:06Z</time></trkpt><trkpt lat="43.116608758965725" lon="0.23507937400571882"><ele>458.75</ele><time>2026-04-01T13:00:07Z</time></trkpt><trkpt lat="43.11646834219176" lon="0.2350746071627829"><ele>455.5</ele><time>2026-04-01T13:00:08Z</time></trkpt><trkpt lat="43.1163294243735" lon="0.23507566856767043"><ele>452.25</ele><time>2026-04-01T13:00:09Z</time></trkpt><trkpt lat="43.11619344920001" lon="0.23507874634793627"><ele>449.0</ele><time>2026-04-01T13:00:10Z</time></trkpt><trkpt lat="43.11606281749163" lon="0.2351074781414086"><ele>449.0</ele><time>2026-04-01T13:00:11Z</time></trkpt><trkpt lat="43.11594240721067" lon="0.23516629596666952"><ele>449.0</ele><time>2026-04-01T13:00:12Z</time></trkpt><trkpt lat="43.115826902883356" lon="0.23525249904287612"><ele>449.0</ele><time>2026-04-01T13:00:13Z</time></trkpt><trkpt lat="43.11572349341534" lon="0.2353711389357143"><ele>449.0</ele><time>2026-04-01T13:00:14Z</time></trkpt><trkpt lat="43.115616922802076" lon="0.2354847379591139"><ele>445.0</ele><time>2026-04-01T13:00:15Z</time></trkpt><trkpt lat="43.115516560526636" lon="0.2356244976906766"><ele>441.0</ele><time>2026-04-01T13:00:16Z</time></trkpt><trkpt lat="43.11542451892511" lon="0.2357884918947047"><ele>437.0</ele><time>2026-04-01T13:00:17Z</time></trkpt><trkpt lat="43.11534362600135" lon="0.2359693430985623"><ele>433.0</ele><time>2026-04-01T13:00:18Z</time></trkpt><trkpt lat="43.115267643379134" lon="0.2361562005053941"><ele>433.0</ele><time>2026-04-01T13:00:19Z</time></trkpt><trkpt lat="43.11518877611101" lon="0.23634062113808835"><ele>433.0</ele><time>2026-04-01T13:00:20Z</time></trkpt><trkpt lat="43.115096392358666" lon="0.23651048152323642"><ele>433.0</ele><time>2026-04-01T13:00:21Z</time></trkpt><trkpt lat="43.114982961259976" lon="0.23665594527925404"><ele>431.33333333333337</ele><time>2026-04-01T13:00:22Z</time></trkpt><trkpt lat="43.11484365358045" lon="0.23676468040398713"><ele>429.66666666666663</ele><time>2026-04-01T13:00:23Z</time></trkpt><trkpt lat="43.11470509418527" lon="0.23686310428650031"><ele>428.0</ele><time>2026-04-01T13:00:24Z</time></trkpt><trkpt lat="43.114571580970804" lon="0.23697373226817195"><ele>428.0</ele><time>2026-04-01T13:00:25Z</time></trkpt><trkpt lat="43.11443334143882" lon="0.23704347737180426"><ele>428.0</ele><time>2026-04-01T13:00:26Z</time></trkpt><trkpt lat="43.11430276603491" lon="0.237104128188274"><ele>428.0</ele><time>2026-04-01T13:00:27Z</time></trkpt><trkpt lat="43.11417612024716" lon="0.2371668743922964"><ele>428.0</ele><time>2026-04-01T13:00:28Z</time></trkpt><trkpt lat="43.114058389045006" lon="0.237238940504538"><ele>426.5</ele><time>2026-04-01T13:00:29Z</time></trkpt><trkpt lat="43.11394930088941" lon="0.23733324531858924"><ele>425.0</ele><time>2026-04-01T13:00:30Z</time></trkpt><trkpt lat="43.11385628281366" lon="0.23745331322030108"><ele>423.5</ele><time>2026-04-01T13:00:31Z</time></trkpt><trkpt lat="43.1137763063019" lon="0.23758823939657372"><ele>422.0</ele><time>2026-04-01T13:00:32Z</time></trkpt><trkpt lat="43.113697440630716" lon="0.23771772773358504"><ele>422.0</ele><time>2026-04-01T13:00:33Z</time></trkpt><trkpt lat="43.11361679293959" lon="0.237845540424632"><ele>422.0</ele><time>2026-04-01T13:00:34Z</time></trkpt><trkpt lat="43.11353321630306" lon="0.23797712833362883"><ele>422.0</ele><time>2026-04-01T13:00:35Z</time></trkpt><trkpt lat="43.11344486909184" lon="0.23810191723440324"><ele>422.0</ele><time>2026-04-01T13:00:36Z</time></trkpt><trkpt lat="43.113348338743606" lon="0.23821528580131765"><ele>419.5</ele><time>2026-04-01T13:00:37Z</time></trkpt><trkpt lat="43.11323787249366" lon="0.23831896783439602"><ele>417.0</ele><time>2026-04-01T13:00:38Z</time></trkpt><trkpt lat="43.1131172196712" lon="0.23841843537099836"><ele>414.5</ele><time>2026-04-01T13:00:39Z</time></trkpt><trkpt lat="43.112998099006866" lon="0.23850999317513844"><ele>412.0</ele><time>2026-04-01T13:00:40Z</time></trkpt><trkpt lat="43.11288431266526" lon="0.23859531718736343"><ele>412.0</ele><time>2026-04-01T13:00:41Z</time></trkpt><trkpt lat="43.11277200848642" lon="0.23868487066140767"><ele>412.0</ele><time>2026-04-01T13:00:42Z</time></trkpt><trkpt lat="43.11266212139548" lon="0.23878357080499832"><ele>412.0</ele><time>2026-04-01T13:00:43Z</time></trkpt><trkpt lat="43.11254996083551" lon="0.23890461259674994"><ele>412.0</ele><time>2026-04-01T13:00:44Z</time></trkpt><trkpt lat="43.11243356801493" lon="0.23903319533632827"><ele>409.6666666666667</ele><time>2026-04-01T13:00:45Z</time></trkpt><trkpt lat="43.11231840260323" lon="0.23916932678366912"><ele>407.33333333333337</ele><time>2026-04-01T13:00:46Z</time></trkpt><trkpt lat="43.1122042359535" lon="0.23931216545968925"><ele>405.0</ele><time>2026-04-01T13:00:47Z</time></trkpt><trkpt lat="43.112100184133766" lon="0.23946293557172546"><ele>405.0</ele><time>2026-04-01T13:00:48Z</time></trkpt><trkpt lat="43.11199755523634" lon="0.23960865709047718"><ele>405.0</ele><time>2026-04-01T13:00:49Z</time></trkpt><trkpt lat="43.11189904270947" lon="0.23975202547861593"><ele>405.0</ele><time>2026-04-01T13:00:50Z</time></trkpt><trkpt lat="43.11180076939454" lon="0.2398933891675496"><ele>405.0</ele><time>2026-04-01T13:00:51Z</time></trkpt><trkpt lat="43.11170422486038" lon="0.24003406060415358"><ele>404.0</ele><time>2026-04-01T13:00:52Z</time></trkpt><trkpt lat="43.11161624909236" lon="0.24017381036866442"><ele>403.0</ele><time>2026-04-01T13:00:53Z</time></trkpt><trkpt lat="43.11154086418426" lon="0.2403248227081435"><ele>402.0</ele><time>2026-04-01T13:00:54Z</time></trkpt><trkpt lat="43.11148809649101" lon="0.24049174729249603"><ele>401.0</ele><time>2026-04-01T13:00:55Z</time></trkpt><trkpt lat="43.11146048861291" lon="0.24066933449747982"><ele>401.0</ele><time>2026-04-01T13:00:56Z</time></trkpt><trkpt lat="43.11145112445722" lon="0.24085207481969864"><ele>401.0</ele><time>2026-04-01T13:00:57Z</time></trkpt><trkpt lat="43.111452067602514" lon="0.24103729180776728"><ele>401.0</ele><time>2026-04-01T13:00:58Z</time></trkpt><trkpt lat="43.111438867132314" lon="0.24122762477671858"><ele>401.0</ele><time>2026-04-01T13:00:59Z</time></trkpt><trkpt lat="43.11140298660969" lon="0.24142280437877578"><ele>400.3333333333333</ele><time>2026-04-01T13:01:00Z</time></trkpt><trkpt lat="43.111326047262516" lon="0.24160319031469404"><ele>399.66666666666663</ele><time>2026-04-01T13:01:01Z</time></trkpt><trkpt lat="43.11124599938534" lon="0.24178705103220832"><ele>399.0</ele><time>2026-04-01T13:01:02Z</time></trkpt><trkpt lat="43.111162507311676" lon="0.24196748036954369"><ele>399.0</ele><time>2026-04-01T13:01:03Z</time></trkpt><trkpt lat="43.111083202506805" lon="0.24214553347215523"><ele>399.0</ele><time>2026-04-01T13:01:04Z</time></trkpt><trkpt lat="43.111028638482914" lon="0.24233415854458734"><ele>399.0</ele><time>2026-04-01T13:01:05Z</time></trkpt><trkpt lat="43.110958981986194" lon="0.24250678270566992"><ele>399.0</ele><time>2026-04-01T13:01:06Z</time></trkpt><trkpt lat="43.11088895982091" lon="0.24267482010108127"><ele>398.0</ele><time>2026-04-01T13:01:07Z</time></trkpt><trkpt lat="43.11080982080062" lon="0.24282982532395003"><ele>397.0</ele><time>2026-04-01T13:01:08Z</time></trkpt><trkpt lat="43.1107198437542" lon="0.2429682593338571"><ele>396.0</ele><time>2026-04-01T13:01:09Z</time></trkpt><trkpt lat="43.11062300546033" lon="0.24309475706168"><ele>395.0</ele><time>2026-04-01T13:01:10Z</time></trkpt><trkpt lat="43.11053497679766" lon="0.24321421896113413"><ele>390.75</ele><time>2026-04-01T13:01:11Z</time></trkpt><trkpt lat="43.11046503565039" lon="0.24334258390440525"><ele>386.5</ele><time>2026-04-01T13:01:12Z</time></trkpt><trkpt lat="43.11042175694201" lon="0.24349286519127353"><ele>382.25</ele><time>2026-04-01T13:01:13Z</time></trkpt><trkpt lat="43.11041249161627" lon="0.2436565923206721"><ele>378.0</ele><time>2026-04-01T13:01:14Z</time></trkpt><trkpt lat="43.11043146368328" lon="0.24381827614645077"><ele>377.25</ele><time>2026-04-01T13:01:15Z</time></trkpt><trkpt lat="43.110470430180925" lon="0.24397075168881885"><ele>376.5</ele><time>2026-04-01T13:01:16Z</time></trkpt><trkpt lat="43.11051518120601" lon="0.24411988924116573"><ele>375.75</ele><time>2026-04-01T13:01:17Z</time></trkpt><trkpt lat="43.110558045434786" lon="0.24427877486780433"><ele>375.0</ele><time>2026-04-01T13:01:18Z</time></trkpt><trkpt lat="43.110597763806396" lon="0.2444550012996402"><ele>375.0</ele><time>2026-04-01T13:01:19Z</time></trkpt><trkpt lat="43.11062890812489" lon="0.24463730691451505"><ele>375.0</ele><time>2026-04-01T13:01:20Z</time></trkpt><trkpt lat="43.11064343749537" lon="0.24482531785452605"><ele>375.0</ele><time>2026-04-01T13:01:21Z</time></trkpt><trkpt lat="43.11064092593185" lon="0.24501874215480846"><ele>375.0</ele><time>2026-04-01T13:01:22Z</time></trkpt><trkpt lat="43.11061158651362" lon="0.24520902435743766"><ele>373.0</ele><time>2026-04-01T13:01:23Z</time></trkpt><trkpt lat="43.11056100800589" lon="0.24539080233510238"><ele>371.0</ele><time>2026-04-01T13:01:24Z</time></trkpt><trkpt lat="43.110481866426476" lon="0.24556264650456572"><ele>369.0</ele><time>2026-04-01T13:01:25Z</time></trkpt><trkpt lat="43.11041808516385" lon="0.24576903048961923"><ele>367.3333333333333</ele><time>2026-04-01T13:01:26Z</time></trkpt><trkpt lat="43.110327385375264" lon="0.24598050586247797"><ele>365.66666666666663</ele><time>2026-04-01T13:01:27Z</time></trkpt><trkpt lat="43.110242464461955" lon="0.24618765147800592"><ele>364.0</ele><time>2026-04-01T13:01:28Z</time></trkpt><trkpt lat="43.1101594263571" lon="0.24638636025371705"><ele>364.3333333333333</ele><time>2026-04-01T13:01:29Z</time></trkpt><trkpt lat="43.11006974924593" lon="0.24656959102535958"><ele>364.6666666666667</ele><time>2026-04-01T13:01:30Z</time></trkpt><trkpt lat="43.10997442692562" lon="0.24673542346523433"><ele>365.0</ele><time>2026-04-01T13:01:31Z</time></trkpt><trkpt lat="43.10987812537027" lon="0.2468937841398593"><ele>362.25</ele><time>2026-04-01T13:01:32Z</time></trkpt><trkpt lat="43.109805030218155" lon="0.24706668984658636"><ele>359.5</ele><time>2026-04-01T13:01:33Z</time></trkpt><trkpt lat="43.10975872076989" lon="0.24725223477502026"><ele>356.75</ele><time>2026-04-01T13:01:34Z</time></trkpt><trkpt lat="43.10973916509167" lon="0.24744387605636362"><ele>354.0</ele><time>2026-04-01T13:01:35Z</time></trkpt><trkpt lat="43.109729625896726" lon="0.2476370568530822"><ele>352.6666666666667</ele><time>2026-04-01T13:01:36Z</time></trkpt><trkpt lat="43.10972688335011" lon="0.24783616869369776"><ele>351.33333333333337</ele><time>2026-04-01T13:01:37Z</time></trkpt><trkpt lat="43.10972089021001" lon="0.24804784784798575"><ele>350.0</ele><time>2026-04-01T13:01:38Z</time></trkpt><trkpt lat="43.109710764917594" lon="0.24826259893546315"><ele>349.0</ele><time>2026-04-01T13:01:39Z</time></trkpt><trkpt lat="43.109695507746345" lon="0.2484839299277687"><ele>348.0</ele><time>2026-04-01T13:01:40Z</time></trkpt><trkpt lat="43.10967451658419" lon="0.24871223119190394"><ele>347.0</ele><time>2026-04-01T13:01:41Z</time></trkpt><trkpt lat="43.10964046407335" lon="0.24893957282322657"><ele>345.6666666666667</ele><time>2026-04-01T13:01:42Z</time></trkpt><trkpt lat="43.109598993824235" lon="0.24916240864245465"><ele>344.3333333333333</ele><time>2026-04-01T13:01:43Z</time></trkpt><trkpt lat="43.109555023556524" lon="0.24937547567011814"><ele>343.0</ele><time>2026-04-01T13:01:44Z</time></trkpt><trkpt lat="43.109513665802304" lon="0.24958393596402892"><ele>343.0</ele><time>2026-04-01T13:01:45Z</time></trkpt><trkpt lat="43.109478229966065" lon="0.24978745098927563"><ele>343.0</ele><time>2026-04-01T13:01:46Z</time></trkpt><trkpt lat="43.10946762159722" lon="0.24998503932969157"><ele>343.0</ele><time>2026-04-01T13:01:47Z</time></trkpt><trkpt lat="43.109484554639465" lon="0.2501913897869826"><ele>343.0</ele><time>2026-04-01T13:01:48Z</time></trkpt><trkpt lat="43.10953199134321" lon="0.2503951536499707"><ele>341.0</ele><time>2026-04-01T13:01:49Z</time></trkpt><trkpt lat="43.10959104304887" lon="0.2506114515522077"><ele>339.0</ele><time>2026-04-01T13:01:50Z</time></trkpt><trkpt lat="43.10965498255476" lon="0.2508390803161069"><ele>337.0</ele><time>2026-04-01T13:01:51Z</time></trkpt><trkpt lat="43.109719174633184" lon="0.25107274785953093"><ele>332.66666666666663</ele><time>2026-04-01T13:01:52Z</time></trkpt><trkpt lat="43.109772260025544" lon="0.25129947478567327"><ele>328.3333333333333</ele><time>2026-04-01T13:01:53Z</time></trkpt><trkpt lat="43.10980664861013" lon="0.25153447875021223"><ele>324.0</ele><time>2026-04-01T13:01:54Z</time></trkpt><trkpt lat="43.10982079714852" lon="0.25178326030711035"><ele>321.6666666666667</ele><time>2026-04-01T13:01:55Z</time></trkpt><trkpt lat="43.10982299496613" lon="0.25204289155543413"><ele>319.33333333333337</ele><time>2026-04-01T13:01:56Z</time></trkpt><trkpt lat="43.10981215929179" lon="0.2523101136375369"><ele>317.0</ele><time>2026-04-01T13:01:57Z</time></trkpt><trkpt lat="43.10979782576432" lon="0.2525891726807986"><ele>316.6666666666667</ele><time>2026-04-01T13:01:58Z</time></trkpt><trkpt lat="43.10978303538103" lon="0.25287488335972347"><ele>316.3333333333333</ele><time>2026-04-01T13:01:59Z</time></trkpt><trkpt lat="43.1097707410982" lon="0.2531653120554561"><ele>316.0</ele><time>2026-04-01T13:02:00Z</time></trkpt><trkpt lat="43.10975982478088" lon="0.25344892474000336"><ele>316.0</ele><time>2026-04-01T13:02:01Z</time></trkpt><trkpt lat="43.10974541799395" lon="0.2537335398919926"><ele>316.0</ele><time>2026-04-01T13:02:02Z</time></trkpt><trkpt lat="43.10973330846641" lon="0.25401575137650684"><ele>316.0</ele><time>2026-04-01T13:02:03Z</time></trkpt><trkpt lat="43.10972184065593" lon="0.2542963824520906"><ele>316.0</ele><time>2026-04-01T13:02:04Z</time></trkpt><trkpt lat="43.109715684302564" lon="0.2545780519862023"><ele>316.0</ele><time>2026-04-01T13:02:05Z</time></trkpt><trkpt lat="43.10970635100288" lon="0.25485954246094966"><ele>316.0</ele><time>2026-04-01T13:02:06Z</time></trkpt><trkpt lat="43.10969841037" lon="0.2551379642456815"><ele>316.66666666666663</ele><time>2026-04-01T13:02:07Z</time></trkpt><trkpt lat="43.10968921705756" lon="0.2554149287069814"><ele>317.3333333333333</ele><time>2026-04-01T13:02:08Z</time></trkpt><trkpt lat="43.10968222180264" lon="0.25568823658909784"><ele>318.0</ele><time>2026-04-01T13:02:09Z</time></trkpt><trkpt lat="43.10967479018396" lon="0.2559614989895042"><ele>319.3333333333333</ele><time>2026-04-01T13:02:10Z</time></trkpt><trkpt lat="43.10966482151958" lon="0.2562304960936035"><ele>320.66666666666663</ele><time>2026-04-01T13:02:11Z</time></trkpt><trkpt lat="43.10965609147133" lon="0.2565001589544781"><ele>322.0</ele><time>2026-04-01T13:02:12Z</time></trkpt><trkpt lat="43.10964744507171" lon="0.2567668330288926"><ele>322.3333333333333</ele><time>2026-04-01T13:02:13Z</time></trkpt><trkpt lat="43.10963687398725" lon="0.2570237220945012"><ele>322.6666666666667</ele><time>2026-04-01T13:02:14Z</time></trkpt><trkpt lat="43.1096270659718" lon="0.2572648723147264"><ele>323.0</ele><time>2026-04-01T13:02:15Z</time></trkpt><trkpt lat="43.1096182941721" lon="0.25749021318024995"><ele>323.0</ele><time>2026-04-01T13:02:16Z</time></trkpt><trkpt lat="43.1096057585379" lon="0.2577026723180272"><ele>323.0</ele><time>2026-04-01T13:02:17Z</time></trkpt><trkpt lat="43.1096005813136" lon="0.25790319809403534"><ele>323.0</ele><time>2026-04-01T13:02:18Z</time></trkpt><trkpt lat="43.10960016804705" lon="0.2580998546262142"><ele>323.0</ele><time>2026-04-01T13:02:19Z</time></trkpt><trkpt lat="43.10961252532888" lon="0.2583172194980072"><ele>319.6666666666667</ele><time>2026-04-01T13:02:20Z</time></trkpt><trkpt lat="43.10962829965865" lon="0.2585477208669177"><ele>316.3333333333333</ele><time>2026-04-01T13:02:21Z</time></trkpt><trkpt lat="43.10965431573769" lon="0.2588002902445399"><ele>313.0</ele><time>2026-04-01T13:02:22Z</time></trkpt><trkpt lat="43.1096886329936" lon="0.25907010170789857"><ele>312.0</ele><time>2026-04-01T13:02:23Z</time></trkpt><trkpt lat="43.10972111666777" lon="0.259357259603634"><ele>311.0</ele><time>2026-04-01T13:02:24Z</time></trkpt><trkpt lat="43.109746178831486" lon="0.2596708306063661"><ele>310.0</ele><time>2026-04-01T13:02:25Z</time></trkpt><trkpt lat="43.10977326375057" lon="0.2599679007986487"><ele>310.0</ele><time>2026-04-01T13:02:26Z</time></trkpt><trkpt lat="43.10980227521035" lon="0.260268520091393"><ele>310.0</ele><time>2026-04-01T13:02:27Z</time></trkpt><trkpt lat="43.109830422872186" lon="0.2605796441556436"><ele>311.0</ele><time>2026-04-01T13:02:28Z</time></trkpt><trkpt lat="43.109854953886476" lon="0.2608905337081801"><ele>312.0</ele><time>2026-04-01T13:02:29Z</time></trkpt><trkpt lat="43.10987917090138" lon="0.26120062771933444"><ele>312.6666666666667</ele><time>2026-04-01T13:02:30Z</time></trkpt><trkpt lat="43.1099007369322" lon="0.2614920714449918"><ele>313.33333333333337</ele><time>2026-04-01T13:02:31Z</time></trkpt><trkpt lat="43.10993070685614" lon="0.26176915238833515"><ele>314.0</ele><time>2026-04-01T13:02:32Z</time></trkpt><trkpt lat="43.10995834250408" lon="0.2620349652616181"><ele>316.0</ele><time>2026-04-01T13:02:33Z</time></trkpt><trkpt lat="43.10997929139968" lon="0.2622853340113633"><ele>318.0</ele><time>2026-04-01T13:02:34Z</time></trkpt><trkpt lat="43.10999323058298" lon="0.26251200061847624"><ele>320.0</ele><time>2026-04-01T13:02:35Z</time></trkpt><trkpt lat="43.110000104155944" lon="0.26271535993282724"><ele>320.0</ele><time>2026-04-01T13:02:36Z</time></trkpt><trkpt lat="43.109998506797425" lon="0.2629032388390479"><ele>320.0</ele><time>2026-04-01T13:02:37Z</time></trkpt><trkpt lat="43.10999374554197" lon="0.26307791591688545"><ele>320.0</ele><time>2026-04-01T13:02:38Z</time></trkpt><trkpt lat="43.10998588065711" lon="0.2632370773335281"><ele>320.0</ele><time>2026-04-01T13:02:39Z</time></trkpt><trkpt lat="43.109965261362866" lon="0.2633771577901472"><ele>320.8</ele><time>2026-04-01T13:02:40Z</time></trkpt><trkpt lat="43.109938812751246" lon="0.2634761964479028"><ele>321.6</ele><time>2026-04-01T13:02:41Z</time></trkpt><trkpt lat="43.109834894230346" lon="0.2634668244068673"><ele>322.4</ele><time>2026-04-01T13:02:42Z</time></trkpt><trkpt lat="43.10975175418937" lon="0.26350463546213976"><ele>323.2</ele><time>2026-04-01T13:02:43Z</time></trkpt><trkpt lat="43.10963914773023" lon="0.2635555704117463"><ele>324.0</ele><time>2026-04-01T13:02:44Z</time></trkpt><trkpt lat="43.109508152476586" lon="0.2636148231759593"><ele>324.0</ele><time>2026-04-01T13:02:45Z</time></trkpt><trkpt lat="43.1093631717275" lon="0.2637003652739082"><ele>324.0</ele><time>2026-04-01T13:02:46Z</time></trkpt><trkpt lat="43.10921216983067" lon="0.26376188633466063"><ele>324.0</ele><time>2026-04-01T13:02:47Z</time></trkpt><trkpt lat="43.1090788869883" lon="0.26384222030007887"><ele>323.75</ele><time>2026-04-01T13:02:48Z</time></trkpt><trkpt lat="43.10895910503846" lon="0.26391568507543745"><ele>323.5</ele><time>2026-04-01T13:02:49Z</time></trkpt><trkpt lat="43.10885021526292" lon="0.2639723733810369"><ele>323.25</ele><time>2026-04-01T13:02:50Z</time></trkpt><trkpt lat="43.10874457556779" lon="0.2639816706376136"><ele>323.0</ele><time>2026-04-01T13:02:51Z</time></trkpt><trkpt lat="43.108641874490615" lon="0.26399060998712554"><ele>323.79999999999995</ele><time>2026-04-01T13:02:52Z</time></trkpt><trkpt lat="43.1085532511468" lon="0.2639991048323286"><ele>324.6</ele><time>2026-04-01T13:02:53Z</time></trkpt><trkpt lat="43.10845018284308" lon="0.26402846035479693"><ele>325.4</ele><time>2026-04-01T13:02:54Z</time></trkpt><trkpt lat="43.10833292475166" lon="0.26403230485488316"><ele>326.20000000000005</ele><time>2026-04-01T13:02:55Z</time></trkpt><trkpt lat="43.108207056427034" lon="0.2640349455355685"><ele>327.0</ele><time>2026-04-01T13:02:56Z</time></trkpt><trkpt lat="43.108076165956106" lon="0.2640390235059939"><ele>327.0</ele><time>2026-04-01T13:02:57Z</time></trkpt><trkpt lat="43.10794755223592" lon="0.2640484135741665"><ele>327.0</ele><time>2026-04-01T13:02:58Z</time></trkpt><trkpt lat="43.10782502018548" lon="0.26405670282843674"><ele>327.0</ele><time>2026-04-01T13:02:59Z</time></trkpt><trkpt lat="43.107700216949866" lon="0.2640634463574019"><ele>327.0</ele><time>2026-04-01T13:03:00Z</time></trkpt><trkpt lat="43.10756689800829" lon="0.2640801610858972"><ele>327.0</ele><time>2026-04-01T13:03:01Z</time></trkpt><trkpt lat="43.10742915681528" lon="0.26412698895216014"><ele>327.0</ele><time>2026-04-01T13:03:02Z</time></trkpt><trkpt lat="43.10729285771639" lon="0.2642006684916124"><ele>327.0</ele><time>2026-04-01T13:03:03Z</time></trkpt><trkpt lat="43.10715392673567" lon="0.2642847231959901"><ele>327.0</ele><time>2026-04-01T13:03:04Z</time></trkpt><trkpt lat="43.10701335242944" lon="0.26436792712352103"><ele>325.25</ele><time>2026-04-01T13:03:05Z</time></trkpt><trkpt lat="43.10686995276836" lon="0.26444500185073094"><ele>323.5</ele><time>2026-04-01T13:03:06Z</time></trkpt><trkpt lat="43.10673230411937" lon="0.2645116276214786"><ele>321.75</ele><time>2026-04-01T13:03:07Z</time></trkpt><trkpt lat="43.106612001222814" lon="0.26457037176046344"><ele>320.0</ele><time>2026-04-01T13:03:08Z</time></trkpt><trkpt lat="43.10650641206535" lon="0.26463120079595764"><ele>318.8</ele><time>2026-04-01T13:03:09Z</time></trkpt><trkpt lat="43.10640848774741" lon="0.26470960453504466"><ele>317.6</ele><time>2026-04-01T13:03:10Z</time></trkpt><trkpt lat="43.10632918616058" lon="0.2648134707976532"><ele>316.4</ele><time>2026-04-01T13:03:11Z</time></trkpt><trkpt lat="43.10627652825781" lon="0.26494480600296455"><ele>315.2</ele><time>2026-04-01T13:03:12Z</time></trkpt><trkpt lat="43.10624174637837" lon="0.2650826700254547"><ele>314.0</ele><time>2026-04-01T13:03:13Z</time></trkpt><trkpt lat="43.10621662602148" lon="0.26520974760187294"><ele>314.0</ele><time>2026-04-01T13:03:14Z</time></trkpt><trkpt lat="43.106193392235994" lon="0.2653261413599463"><ele>314.0</ele><time>2026-04-01T13:03:15Z</time></trkpt><trkpt lat="43.10617200829753" lon="0.26541154807734463"><ele>314.0</ele><time>2026-04-01T13:03:16Z</time></trkpt><trkpt lat="43.10615045494579" lon="0.2655753568992988"><ele>314.0</ele><time>2026-04-01T13:03:57Z</time></trkpt><trkpt lat="43.10611751222357" lon="0.26574034680601394"><ele>314.0</ele><time>2026-04-01T13:03:58Z</time></trkpt><trkpt lat="43.10607466535979" lon="0.2659291513571269"><ele>314.0</ele><time>2026-04-01T13:03:59Z</time></trkpt><trkpt lat="43.10601388890168" lon="0.2661679583549749"><ele>314.0</ele><time>2026-04-01T13:04:00Z</time></trkpt><trkpt lat="43.105952617516294" lon="0.2664186465313542"><ele>314.0</ele><time>2026-04-01T13:04:01Z</time></trkpt><trkpt lat="43.10588735213065" lon="0.2666876860034105"><ele>314.0</ele><time>2026-04-01T13:04:02Z</time></trkpt><trkpt lat="43.10581881386075" lon="0.26697516613597605"><ele>314.0</ele><time>2026-04-01T13:04:03Z</time></trkpt><trkpt lat="43.10574769174032" lon="0.2672574214741053"><ele>314.0</ele><time>2026-04-01T13:04:04Z</time></trkpt><trkpt lat="43.10568717250896" lon="0.2675120497027185"><ele>314.33333333333337</ele><time>2026-04-01T13:04:05Z</time></trkpt><trkpt lat="43.10563288909763" lon="0.26774298355083764"><ele>314.6666666666667</ele><time>2026-04-01T13:04:06Z</time></trkpt><trkpt lat="43.10558566983976" lon="0.2679541732633974"><ele>315.0</ele><time>2026-04-01T13:04:07Z</time></trkpt><trkpt lat="43.10554000847802" lon="0.26814563957739435"><ele>316.0</ele><time>2026-04-01T13:04:08Z</time></trkpt><trkpt lat="43.10548114133364" lon="0.26831546453905686"><ele>317.0</ele><time>2026-04-01T13:04:09Z</time></trkpt><trkpt lat="43.10541565957268" lon="0.26847602872016735"><ele>318.0</ele><time>2026-04-01T13:04:10Z</time></trkpt><trkpt lat="43.10531885872925" lon="0.2686369700757672"><ele>319.0</ele><time>2026-04-01T13:04:11Z</time></trkpt><trkpt lat="43.10519730574795" lon="0.2687786108300079"><ele>319.0</ele><time>2026-04-01T13:04:12Z</time></trkpt><trkpt lat="43.10504397883816" lon="0.26887748916048637"><ele>319.0</ele><time>2026-04-01T13:04:13Z</time></trkpt><trkpt lat="43.10487996154622" lon="0.26897621654780646"><ele>319.0</ele><time>2026-04-01T13:04:14Z</time></trkpt><trkpt lat="43.104703579209996" lon="0.2690648497804507"><ele>321.5</ele><time>2026-04-01T13:04:15Z</time></trkpt><trkpt lat="43.10455397178092" lon="0.2691442192056078"><ele>324.0</ele><time>2026-04-01T13:04:16Z</time></trkpt><trkpt lat="43.10444575432348" lon="0.2691949100263126"><ele>326.5</ele><time>2026-04-01T13:04:17Z</time></trkpt><trkpt lat="43.10437778701547" lon="0.26922549938539214"><ele>329.0</ele><time>2026-04-01T13:04:18Z</time></trkpt><trkpt lat="43.104248398506314" lon="0.2692809047788584"><ele>329.0</ele><time>2026-04-01T13:04:20Z</time></trkpt><trkpt lat="43.10410898994624" lon="0.2693510830505767"><ele>329.0</ele><time>2026-04-01T13:04:21Z</time></trkpt><trkpt lat="43.10393319268766" lon="0.26944032884194075"><ele>329.0</ele><time>2026-04-01T13:04:22Z</time></trkpt><trkpt lat="43.10376349693781" lon="0.2695236762352715"><ele>331.75</ele><time>2026-04-01T13:04:23Z</time></trkpt><trkpt lat="43.10361672710843" lon="0.26959896476899814"><ele>334.5</ele><time>2026-04-01T13:04:24Z</time></trkpt><trkpt lat="43.10349437088699" lon="0.2696600792366559"><ele>337.25</ele><time>2026-04-01T13:04:25Z</time></trkpt><trkpt lat="43.103397254343896" lon="0.26970244287349376"><ele>340.0</ele><time>2026-04-01T13:04:26Z</time></trkpt><trkpt lat="43.10332226496719" lon="0.2697343954606272"><ele>340.0</ele><time>2026-04-01T13:04:27Z</time></trkpt><trkpt lat="43.10326511617132" lon="0.269774681590366"><ele>340.0</ele><time>2026-04-01T13:04:30Z</time></trkpt><trkpt lat="43.103276832640525" lon="0.2699295154355917"><ele>340.0</ele><time>2026-04-01T13:04:33Z</time></trkpt><trkpt lat="43.10333697378662" lon="0.27008388055899435"><ele>340.0</ele><time>2026-04-01T13:04:35Z</time></trkpt><trkpt lat="43.103350094179795" lon="0.2701846929048082"><ele>340.0</ele><time>2026-04-01T13:04:36Z</time></trkpt><trkpt lat="43.10334769146391" lon="0.2702930485829626"><ele>338.66666666666663</ele><time>2026-04-01T13:04:37Z</time></trkpt><trkpt lat="43.10334339043991" lon="0.2703970892549373"><ele>337.3333333333333</ele><time>2026-04-01T13:04:38Z</time></trkpt><trkpt lat="43.10334034872774" lon="0.2704969105765847"><ele>336.0</ele><time>2026-04-01T13:04:39Z</time></trkpt><trkpt lat="43.10334902427578" lon="0.2706050862825827"><ele>334.6666666666667</ele><time>2026-04-01T13:04:40Z</time></trkpt><trkpt lat="43.10336792807051" lon="0.2707242257150184"><ele>333.33333333333337</ele><time>2026-04-01T13:04:41Z</time></trkpt><trkpt lat="43.103395395454335" lon="0.27085483973708685"><ele>332.0</ele><time>2026-04-01T13:04:42Z</time></trkpt><trkpt lat="43.10342836542219" lon="0.2709904468386084"><ele>331.6666666666667</ele><time>2026-04-01T13:04:43Z</time></trkpt><trkpt lat="43.10345394308235" lon="0.2711134019489734"><ele>331.33333333333337</ele><time>2026-04-01T13:04:44Z</time></trkpt><trkpt lat="43.10346730507389" lon="0.2712206854348312"><ele>331.0</ele><time>2026-04-01T13:04:45Z</time></trkpt><trkpt lat="43.10344258053636" lon="0.2713579356195748"><ele>330.6666666666667</ele><time>2026-04-01T13:04:47Z</time></trkpt><trkpt lat="43.1033810943858" lon="0.27138909980344594"><ele>330.3333333333333</ele><time>2026-04-01T13:04:48Z</time></trkpt><trkpt lat="43.103307661747515" lon="0.2714500767468237"><ele>330.0</ele><time>2026-04-01T13:04:49Z</time></trkpt><trkpt lat="43.103214342715816" lon="0.2715426959079771"><ele>328.5</ele><time>2026-04-01T13:04:50Z</time></trkpt><trkpt lat="43.10310150413039" lon="0.27161811209702724"><ele>327.0</ele><time>2026-04-01T13:04:51Z</time></trkpt><trkpt lat="43.102990946876155" lon="0.27171001044677645"><ele>325.5</ele><time>2026-04-01T13:04:52Z</time></trkpt><trkpt lat="43.10288886868543" lon="0.2718217717911145"><ele>324.0</ele><time>2026-04-01T13:04:53Z</time></trkpt><trkpt lat="43.10279253706968" lon="0.2719467197828617"><ele>324.0</ele><time>2026-04-01T13:04:54Z</time></trkpt><trkpt lat="43.1027059023409" lon="0.2720743268043398"><ele>324.0</ele><time>2026-04-01T13:04:55Z</time></trkpt><trkpt lat="43.10263283426551" lon="0.2722025457485891"><ele>324.0</ele><time>2026-04-01T13:04:56Z</time></trkpt><trkpt lat="43.102573965741776" lon="0.27233445862203504"><ele>324.0</ele><time>2026-04-01T13:04:57Z</time></trkpt><trkpt lat="43.10252422162088" lon="0.2724660493040945"><ele>324.0</ele><time>2026-04-01T13:04:58Z</time></trkpt><trkpt lat="43.10247401145098" lon="0.2725902124193373"><ele>324.0</ele><time>2026-04-01T13:04:59Z</time></trkpt><trkpt lat="43.10242506387107" lon="0.27270061861449874"><ele>324.0</ele><time>2026-04-01T13:05:00Z</time></trkpt><trkpt lat="43.102385186222726" lon="0.2727918249139141"><ele>324.0</ele><time>2026-04-01T13:05:01Z</time></trkpt><trkpt lat="43.10234701598191" lon="0.27287950718508075"><ele>324.0</ele><time>2026-04-01T13:05:02Z</time></trkpt><trkpt lat="43.1023143464703" lon="0.2729593103526912"><ele>324.0</ele><time>2026-04-01T13:05:03Z</time></trkpt><trkpt lat="43.102290803841115" lon="0.2730416550389726"><ele>324.3333333333333</ele><time>2026-04-01T13:05:04Z</time></trkpt><trkpt lat="43.10233092074565" lon="0.27320056229870965"><ele>324.6666666666667</ele><time>2026-04-01T13:05:06Z</time></trkpt><trkpt lat="43.102381043082076" lon="0.27327952444392944"><ele>325.0</ele><time>2026-04-01T13:05:07Z</time></trkpt><trkpt lat="43.102420641530045" lon="0.2733607816081334"><ele>325.33333333333337</ele><time>2026-04-01T13:05:08Z</time></trkpt><trkpt lat="43.102453518308295" lon="0.27344517243042593"><ele>325.6666666666667</ele><time>2026-04-01T13:05:09Z</time></trkpt><trkpt lat="43.102479952294864" lon="0.27354896148448477"><ele>326.0</ele><time>2026-04-01T13:05:10Z</time></trkpt><trkpt lat="43.10248192904363" lon="0.27364193864862707"><ele>327.25</ele><time>2026-04-01T13:05:11Z</time></trkpt><trkpt lat="43.1024087110545" lon="0.2737885162211925"><ele>328.5</ele><time>2026-04-01T13:05:13Z</time></trkpt><trkpt lat="43.10233789379046" lon="0.27388500173742725"><ele>329.75</ele><time>2026-04-01T13:05:14Z</time></trkpt><trkpt lat="43.10224689295185" lon="0.27399483320643725"><ele>331.0</ele><time>2026-04-01T13:05:15Z</time></trkpt><trkpt lat="43.10214486600795" lon="0.27410467513939757"><ele>332.0</ele><time>2026-04-01T13:05:16Z</time></trkpt><trkpt lat="43.102032955014984" lon="0.27421642923501743"><ele>333.0</ele><time>2026-04-01T13:05:17Z</time></trkpt><trkpt lat="43.10190969952964" lon="0.2743394502225407"><ele>334.0</ele><time>2026-04-01T13:05:18Z</time></trkpt><trkpt lat="43.10178149905694" lon="0.2744692211670945"><ele>334.0</ele><time>2026-04-01T13:05:19Z</time></trkpt><trkpt lat="43.101654184095594" lon="0.2745958657296928"><ele>334.0</ele><time>2026-04-01T13:05:20Z</time></trkpt><trkpt lat="43.10152917927788" lon="0.27471072410627645"><ele>334.0</ele><time>2026-04-01T13:05:21Z</time></trkpt><trkpt lat="43.10140028309938" lon="0.2748034565622919"><ele>339.25</ele><time>2026-04-01T13:05:22Z</time></trkpt><trkpt lat="43.10126837807525" lon="0.2748675319305561"><ele>344.5</ele><time>2026-04-01T13:05:23Z</time></trkpt><trkpt lat="43.10112573042564" lon="0.274922256091428"><ele>349.75</ele><time>2026-04-01T13:05:24Z</time></trkpt><trkpt lat="43.100979491457736" lon="0.2749865205743196"><ele>355.0</ele><time>2026-04-01T13:05:25Z</time></trkpt><trkpt lat="43.1008377524368" lon="0.2750579759786137"><ele>356.66666666666663</ele><time>2026-04-01T13:05:26Z</time></trkpt><trkpt lat="43.10069720113596" lon="0.27515201401626094"><ele>358.3333333333333</ele><time>2026-04-01T13:05:27Z</time></trkpt><trkpt lat="43.10056071538721" lon="0.275246267399531"><ele>360.0</ele><time>2026-04-01T13:05:28Z</time></trkpt><trkpt lat="43.10041972951886" lon="0.275344881670141"><ele>360.0</ele><time>2026-04-01T13:05:29Z</time></trkpt><trkpt lat="43.10028140002251" lon="0.27546041033615276"><ele>360.0</ele><time>2026-04-01T13:05:30Z</time></trkpt><trkpt lat="43.100141138751866" lon="0.2755824503333175"><ele>360.0</ele><time>2026-04-01T13:05:31Z</time></trkpt><trkpt lat="43.09999867335164" lon="0.27569982096907425"><ele>365.0</ele><time>2026-04-01T13:05:32Z</time></trkpt><trkpt lat="43.09985448563773" lon="0.27581785930649394"><ele>370.0</ele><time>2026-04-01T13:05:33Z</time></trkpt><trkpt lat="43.099719298804395" lon="0.27593441596078144"><ele>375.0</ele><time>2026-04-01T13:05:34Z</time></trkpt><trkpt lat="43.09958593446091" lon="0.2760462522759652"><ele>375.0</ele><time>2026-04-01T13:05:35Z</time></trkpt><trkpt lat="43.09945751538344" lon="0.27616217089802375"><ele>375.0</ele><time>2026-04-01T13:05:36Z</time></trkpt><trkpt lat="43.09934149626414" lon="0.27627979879725395"><ele>375.0</ele><time>2026-04-01T13:05:37Z</time></trkpt><trkpt lat="43.09924576434978" lon="0.27640339866372443"><ele>375.0</ele><time>2026-04-01T13:05:38Z</time></trkpt><trkpt lat="43.09916239430492" lon="0.276521764320522"><ele>375.8</ele><time>2026-04-01T13:05:39Z</time></trkpt><trkpt lat="43.0990873051934" lon="0.27660611575422855"><ele>376.6</ele><time>2026-04-01T13:05:40Z</time></trkpt><trkpt lat="43.09902995669932" lon="0.2766621791160557"><ele>377.4</ele><time>2026-04-01T13:05:41Z</time></trkpt><trkpt lat="43.09901290326481" lon="0.2768030431929295"><ele>378.2</ele><time>2026-04-01T13:05:43Z</time></trkpt><trkpt lat="43.09911340496818" lon="0.27687180334173206"><ele>379.0</ele><time>2026-04-01T13:05:45Z</time></trkpt><trkpt lat="43.09918740499663" lon="0.2768452682465852"><ele>379.0</ele><time>2026-04-01T13:05:46Z</time></trkpt><trkpt lat="43.0992809611086" lon="0.2767905635418647"><ele>379.0</ele><time>2026-04-01T13:05:47Z</time></trkpt><trkpt lat="43.099375141709366" lon="0.2767084009940128"><ele>379.0</ele><time>2026-04-01T13:05:48Z</time></trkpt><trkpt lat="43.09949785957607" lon="0.2765815716066469"><ele>379.0</ele><time>2026-04-01T13:05:49Z</time></trkpt><trkpt lat="43.09960322750109" lon="0.27648543514231105"><ele>379.0</ele><time>2026-04-01T13:05:50Z</time></trkpt><trkpt lat="43.09969625770587" lon="0.2764125274353542"><ele>379.0</ele><time>2026-04-01T13:05:51Z</time></trkpt><trkpt lat="43.099779000667155" lon="0.27641440046753935"><ele>379.0</ele><time>2026-04-01T13:05:52Z</time></trkpt><trkpt lat="43.09984561343177" lon="0.2764805657974361"><ele>379.0</ele><time>2026-04-01T13:05:54Z</time></trkpt><trkpt lat="43.09983349345742" lon="0.27656953061333145"><ele>379.0</ele><time>2026-04-01T13:05:56Z</time></trkpt><trkpt lat="43.099786348960606" lon="0.2766428079079294"><ele>379.0</ele><time>2026-04-01T13:05:57Z</time></trkpt><trkpt lat="43.099707542679916" lon="0.2767108420842927"><ele>379.0</ele><time>2026-04-01T13:05:58Z</time></trkpt><trkpt lat="43.09961081509954" lon="0.27680502785751454"><ele>379.0</ele><time>2026-04-01T13:05:59Z</time></trkpt><trkpt lat="43.09950965777769" lon="0.276933326315739"><ele>379.0</ele><time>2026-04-01T13:06:00Z</time></trkpt><trkpt lat="43.09941108447631" lon="0.2770952451640915"><ele>379.0</ele><time>2026-04-01T13:06:01Z</time></trkpt><trkpt lat="43.09931500462475" lon="0.2772735348609308"><ele>379.75</ele><time>2026-04-01T13:06:02Z</time></trkpt><trkpt lat="43.09922190523273" lon="0.27746184732680834"><ele>380.5</ele><time>2026-04-01T13:06:03Z</time></trkpt><trkpt lat="43.099140991143884" lon="0.2776346809345046"><ele>381.25</ele><time>2026-04-01T13:06:04Z</time></trkpt><trkpt lat="43.09908601700061" lon="0.27778972325048923"><ele>382.0</ele><time>2026-04-01T13:06:05Z</time></trkpt><trkpt lat="43.09903318169097" lon="0.27794194459463056"><ele>383.0</ele><time>2026-04-01T13:06:06Z</time></trkpt><trkpt lat="43.099002426612834" lon="0.2781295313643092"><ele>384.0</ele><time>2026-04-01T13:06:07Z</time></trkpt><trkpt lat="43.09897689017219" lon="0.2783453123608995"><ele>385.0</ele><time>2026-04-01T13:06:08Z</time></trkpt><trkpt lat="43.09895320073855" lon="0.27853387866485063"><ele>386.0</ele><time>2026-04-01T13:06:09Z</time></trkpt><trkpt lat="43.09894058446197" lon="0.2787022942258604"><ele>386.0</ele><time>2026-04-01T13:06:10Z</time></trkpt><trkpt lat="43.098955690477055" lon="0.2788637905651636"><ele>386.0</ele><time>2026-04-01T13:06:11Z</time></trkpt><trkpt lat="43.09899627572902" lon="0.27903056157323275"><ele>386.0</ele><time>2026-04-01T13:06:12Z</time></trkpt><trkpt lat="43.09905177860573" lon="0.2792104039026798"><ele>386.0</ele><time>2026-04-01T13:06:13Z</time></trkpt><trkpt lat="43.0991156987789" lon="0.27939444597525187"><ele>392.0</ele><time>2026-04-01T13:06:14Z</time></trkpt><trkpt lat="43.099189538098784" lon="0.27956884782655866"><ele>398.0</ele><time>2026-04-01T13:06:15Z</time></trkpt><trkpt lat="43.099252950599826" lon="0.2797512901362926"><ele>404.0</ele><time>2026-04-01T13:06:16Z</time></trkpt><trkpt lat="43.09928737434579" lon="0.2799459899878478"><ele>410.0</ele><time>2026-04-01T13:06:17Z</time></trkpt><trkpt lat="43.09930424525177" lon="0.280147107279539"><ele>411.0</ele><time>2026-04-01T13:06:18Z</time></trkpt><trkpt lat="43.09931822563152" lon="0.2803518566898121"><ele>412.0</ele><time>2026-04-01T13:06:19Z</time></trkpt><trkpt lat="43.09932716519893" lon="0.28055658612139034"><ele>413.0</ele><time>2026-04-01T13:06:20Z</time></trkpt><trkpt lat="43.09933323241041" lon="0.28076273067028296"><ele>414.25</ele><time>2026-04-01T13:06:21Z</time></trkpt><trkpt lat="43.09933662462014" lon="0.28096513296523856"><ele>415.5</ele><time>2026-04-01T13:06:22Z</time></trkpt><trkpt lat="43.09933717357767" lon="0.28114603776545677"><ele>416.75</ele><time>2026-04-01T13:06:23Z</time></trkpt><trkpt lat="43.09931561957886" lon="0.28132409036459927"><ele>418.0</ele><time>2026-04-01T13:06:24Z</time></trkpt><trkpt lat="43.09926900368771" lon="0.2815029237154948"><ele>417.6666666666667</ele><time>2026-04-01T13:06:25Z</time></trkpt><trkpt lat="43.09918999546436" lon="0.28166086728499473"><ele>417.33333333333337</ele><time>2026-04-01T13:06:26Z</time></trkpt><trkpt lat="43.099124801055694" lon="0.28186041953689106"><ele>417.0</ele><time>2026-04-01T13:06:27Z</time></trkpt><trkpt lat="43.099037638920876" lon="0.28206012715359813"><ele>417.0</ele><time>2026-04-01T13:06:28Z</time></trkpt><trkpt lat="43.09895815711141" lon="0.2822581040886664"><ele>417.0</ele><time>2026-04-01T13:06:29Z</time></trkpt><trkpt lat="43.09889883528575" lon="0.2824646248720409"><ele>417.0</ele><time>2026-04-01T13:06:30Z</time></trkpt><trkpt lat="43.098858163443836" lon="0.2826683452472939"><ele>418.25</ele><time>2026-04-01T13:06:31Z</time></trkpt><trkpt lat="43.098820385126466" lon="0.2828625198309948"><ele>419.5</ele><time>2026-04-01T13:06:32Z</time></trkpt><trkpt lat="43.09876399588486" lon="0.28305863135928466"><ele>420.75</ele><time>2026-04-01T13:06:33Z</time></trkpt><trkpt lat="43.098683288359915" lon="0.283229240555043"><ele>422.0</ele><time>2026-04-01T13:06:34Z</time></trkpt><trkpt lat="43.09860162734596" lon="0.28340019831159396"><ele>424.66666666666663</ele><time>2026-04-01T13:06:35Z</time></trkpt><trkpt lat="43.098510115428205" lon="0.28356412522075486"><ele>427.33333333333337</ele><time>2026-04-01T13:06:36Z</time></trkpt><trkpt lat="43.09841723397521" lon="0.28373268284290476"><ele>430.0</ele><time>2026-04-01T13:06:37Z</time></trkpt><trkpt lat="43.09832540554942" lon="0.2839269981795377"><ele>432.33333333333337</ele><time>2026-04-01T13:06:38Z</time></trkpt><trkpt lat="43.09821763685272" lon="0.28411522921200916"><ele>434.66666666666663</ele><time>2026-04-01T13:06:39Z</time></trkpt><trkpt lat="43.09811380753892" lon="0.28430418521061773"><ele>437.0</ele><time>2026-04-01T13:06:40Z</time></trkpt><trkpt lat="43.09800703385986" lon="0.28447537400656525"><ele>437.0</ele><time>2026-04-01T13:06:41Z</time></trkpt><trkpt lat="43.09787441785551" lon="0.2846161554790821"><ele>437.0</ele><time>2026-04-01T13:06:42Z</time></trkpt><trkpt lat="43.09774126699324" lon="0.2847551003665749"><ele>437.0</ele><time>2026-04-01T13:06:43Z</time></trkpt><trkpt lat="43.09761453638414" lon="0.28491377345873437"><ele>439.66666666666663</ele><time>2026-04-01T13:06:44Z</time></trkpt><trkpt lat="43.097483552511605" lon="0.28505317756271"><ele>442.33333333333337</ele><time>2026-04-01T13:06:45Z</time></trkpt><trkpt lat="43.09735921276065" lon="0.28519347334419126"><ele>445.0</ele><time>2026-04-01T13:06:46Z</time></trkpt><trkpt lat="43.09723769388771" lon="0.28532648145954365"><ele>446.0</ele><time>2026-04-01T13:06:47Z</time></trkpt><trkpt lat="43.09711722081322" lon="0.2854499791090521"><ele>447.0</ele><time>2026-04-01T13:06:48Z</time></trkpt><trkpt lat="43.09699853216485" lon="0.28556919455805574"><ele>448.0</ele><time>2026-04-01T13:06:49Z</time></trkpt><trkpt lat="43.09688294637722" lon="0.28568665886677375"><ele>449.0</ele><time>2026-04-01T13:06:50Z</time></trkpt><trkpt lat="43.09678067212933" lon="0.2857863894415574"><ele>449.8333333333333</ele><time>2026-04-01T13:06:51Z</time></trkpt><trkpt lat="43.0966959248875" lon="0.2858701963377972"><ele>450.66666666666663</ele><time>2026-04-01T13:06:52Z</time></trkpt><trkpt lat="43.096633402859936" lon="0.2859272900774589"><ele>451.5</ele><time>2026-04-01T13:06:53Z</time></trkpt><trkpt lat="43.09659140366459" lon="0.28599230512862495"><ele>452.33333333333337</ele><time>2026-04-01T13:06:56Z</time></trkpt><trkpt lat="43.09661341548136" lon="0.2861190531499561"><ele>453.1666666666667</ele><time>2026-04-01T13:07:00Z</time></trkpt><trkpt lat="43.09666170826443" lon="0.286223969362937"><ele>454.0</ele><time>2026-04-01T13:07:01Z</time></trkpt><trkpt lat="43.09671158644659" lon="0.28634594610105496"><ele>454.0</ele><time>2026-04-01T13:07:02Z</time></trkpt><trkpt lat="43.09676296635255" lon="0.28649285927121104"><ele>454.0</ele><time>2026-04-01T13:07:03Z</time></trkpt><trkpt lat="43.096814378105954" lon="0.28663839300378063"><ele>454.0</ele><time>2026-04-01T13:07:04Z</time></trkpt><trkpt lat="43.09687376406392" lon="0.28675195544924703"><ele>454.0</ele><time>2026-04-01T13:07:05Z</time></trkpt><trkpt lat="43.0969418489002" lon="0.28681381074111717"><ele>454.0</ele><time>2026-04-01T13:07:06Z</time></trkpt><trkpt lat="43.09699525407667" lon="0.28686244441280684"><ele>454.0</ele><time>2026-04-01T13:07:07Z</time></trkpt><trkpt lat="43.09706685616402" lon="0.28698256095222163"><ele>454.0</ele><time>2026-04-01T13:07:09Z</time></trkpt><trkpt lat="43.09712844550065" lon="0.28705661518884573"><ele>454.0</ele><time>2026-04-01T13:07:10Z</time></trkpt><trkpt lat="43.097208369234025" lon="0.2871171459902804"><ele>454.0</ele><time>2026-04-01T13:07:11Z</time></trkpt><trkpt lat="43.0972990292707" lon="0.28714407881194526"><ele>454.0</ele><time>2026-04-01T13:07:12Z</time></trkpt><trkpt lat="43.09741006914525" lon="0.2871393089471377"><ele>457.0</ele><time>2026-04-01T13:07:13Z</time></trkpt><trkpt lat="43.09753999936538" lon="0.2871146484219428"><ele>460.0</ele><time>2026-04-01T13:07:14Z</time></trkpt><trkpt lat="43.09768402892432" lon="0.2870857710676718"><ele>463.0</ele><time>2026-04-01T13:07:15Z</time></trkpt><trkpt lat="43.09784148111694" lon="0.28710725363115747"><ele>466.0</ele><time>2026-04-01T13:07:16Z</time></trkpt><trkpt lat="43.09800339415108" lon="0.28714158234372444"><ele>466.0</ele><time>2026-04-01T13:07:17Z</time></trkpt><trkpt lat="43.098159213863866" lon="0.28717678392034224"><ele>466.0</ele><time>2026-04-01T13:07:18Z</time></trkpt><trkpt lat="43.0982964471232" lon="0.28724990290858604"><ele>466.0</ele><time>2026-04-01T13:07:19Z</time></trkpt><trkpt lat="43.09841924697018" lon="0.2873125984093725"><ele>466.0</ele><time>2026-04-01T13:07:20Z</time></trkpt><trkpt lat="43.09853480020675" lon="0.2873561715726083"><ele>466.6</ele><time>2026-04-01T13:07:21Z</time></trkpt><trkpt lat="43.098626094761855" lon="0.28738381326062584"><ele>467.20000000000005</ele><time>2026-04-01T13:07:22Z</time></trkpt><trkpt lat="43.0986892553484" lon="0.2874176963913921"><ele>467.79999999999995</ele><time>2026-04-01T13:07:23Z</time></trkpt><trkpt lat="43.098721900084854" lon="0.2875494612054079"><ele>468.4</ele><time>2026-04-01T13:07:25Z</time></trkpt><trkpt lat="43.09876256266066" lon="0.28766956193557186"><ele>469.0</ele><time>2026-04-01T13:07:26Z</time></trkpt><trkpt lat="43.098801695754396" lon="0.2878374214877399"><ele>469.0</ele><time>2026-04-01T13:07:27Z</time></trkpt><trkpt lat="43.098858914523305" lon="0.2880280052608056"><ele>469.0</ele><time>2026-04-01T13:07:28Z</time></trkpt><trkpt lat="43.09891137871996" lon="0.2882045530447261"><ele>469.0</ele><time>2026-04-01T13:07:29Z</time></trkpt><trkpt lat="43.09895368344312" lon="0.2883827873489282"><ele>469.0</ele><time>2026-04-01T13:07:30Z</time></trkpt><trkpt lat="43.09897214375891" lon="0.28856789607768335"><ele>467.5</ele><time>2026-04-01T13:07:31Z</time></trkpt><trkpt lat="43.098931763631256" lon="0.28874345589174144"><ele>466.0</ele><time>2026-04-01T13:07:32Z</time></trkpt><trkpt lat="43.098876194080326" lon="0.28890746676709805"><ele>464.5</ele><time>2026-04-01T13:07:33Z</time></trkpt><trkpt lat="43.098816334900654" lon="0.2890971677322021"><ele>463.0</ele><time>2026-04-01T13:07:34Z</time></trkpt><trkpt lat="43.0987250616758" lon="0.28929427337507513"><ele>462.75</ele><time>2026-04-01T13:07:35Z</time></trkpt><trkpt lat="43.09864509593379" lon="0.2894870826856384"><ele>462.5</ele><time>2026-04-01T13:07:36Z</time></trkpt><trkpt lat="43.09858148756024" lon="0.289653180397331"><ele>462.25</ele><time>2026-04-01T13:07:37Z</time></trkpt><trkpt lat="43.098535521976885" lon="0.2898012385291053"><ele>462.0</ele><time>2026-04-01T13:07:38Z</time></trkpt><trkpt lat="43.09851864452274" lon="0.2899586560255018"><ele>463.5</ele><time>2026-04-01T13:07:39Z</time></trkpt><trkpt lat="43.09853186714504" lon="0.29012378518654186"><ele>465.0</ele><time>2026-04-01T13:07:40Z</time></trkpt><trkpt lat="43.098569983864046" lon="0.2902922525760757"><ele>466.5</ele><time>2026-04-01T13:07:41Z</time></trkpt><trkpt lat="43.09862256094859" lon="0.29047448117031527"><ele>468.0</ele><time>2026-04-01T13:07:42Z</time></trkpt><trkpt lat="43.098679603852574" lon="0.29067567017116025"><ele>469.33333333333337</ele><time>2026-04-01T13:07:43Z</time></trkpt><trkpt lat="43.09870630112172" lon="0.2908982947085553"><ele>470.6666666666667</ele><time>2026-04-01T13:07:44Z</time></trkpt><trkpt lat="43.09872235173486" lon="0.29111615672335794"><ele>472.0</ele><time>2026-04-01T13:07:45Z</time></trkpt><trkpt lat="43.098704732791845" lon="0.2913263353833986"><ele>474.25</ele><time>2026-04-01T13:07:46Z</time></trkpt><trkpt lat="43.09866917045264" lon="0.29153154485541055"><ele>476.5</ele><time>2026-04-01T13:07:47Z</time></trkpt><trkpt lat="43.0986100883602" lon="0.2917200700350612"><ele>478.75</ele><time>2026-04-01T13:07:48Z</time></trkpt><trkpt lat="43.09850884382679" lon="0.2918367922339905"><ele>481.0</ele><time>2026-04-01T13:07:49Z</time></trkpt><trkpt lat="43.09839038488608" lon="0.2919596112500364"><ele>481.0</ele><time>2026-04-01T13:07:50Z</time></trkpt><trkpt lat="43.09826835045199" lon="0.29211673432506363"><ele>481.0</ele><time>2026-04-01T13:07:51Z</time></trkpt><trkpt lat="43.09812325782818" lon="0.2922588519883208"><ele>481.0</ele><time>2026-04-01T13:07:52Z</time></trkpt><trkpt lat="43.09798582599777" lon="0.29241653720024413"><ele>480.6666666666667</ele><time>2026-04-01T13:07:53Z</time></trkpt><trkpt lat="43.09785205892917" lon="0.29257838136681175"><ele>480.33333333333337</ele><time>2026-04-01T13:07:54Z</time></trkpt><trkpt lat="43.09772944748723" lon="0.29275486868661793"><ele>480.0</ele><time>2026-04-01T13:07:55Z</time></trkpt><trkpt lat="43.09762008591459" lon="0.2929357256289696"><ele>483.0</ele><time>2026-04-01T13:07:56Z</time></trkpt><trkpt lat="43.09753219790476" lon="0.29311550364484534"><ele>486.0</ele><time>2026-04-01T13:07:57Z</time></trkpt><trkpt lat="43.097466619053904" lon="0.2933094016125656"><ele>489.0</ele><time>2026-04-01T13:07:58Z</time></trkpt><trkpt lat="43.097418518345386" lon="0.29351876915226194"><ele>483.33333333333337</ele><time>2026-04-01T13:07:59Z</time></trkpt><trkpt lat="43.097378021507595" lon="0.2937268286844659"><ele>477.6666666666667</ele><time>2026-04-01T13:08:00Z</time></trkpt><trkpt lat="43.097345063260704" lon="0.29393682942322175"><ele>472.0</ele><time>2026-04-01T13:08:01Z</time></trkpt><trkpt lat="43.09735376166918" lon="0.29415152231462854"><ele>472.0</ele><time>2026-04-01T13:08:02Z</time></trkpt><trkpt lat="43.09737408381349" lon="0.2943407441412044"><ele>472.0</ele><time>2026-04-01T13:08:03Z</time></trkpt><trkpt lat="43.09738887919686" lon="0.2945234436496965"><ele>472.0</ele><time>2026-04-01T13:08:04Z</time></trkpt><trkpt lat="43.097375016048794" lon="0.29470665919068756"><ele>472.0</ele><time>2026-04-01T13:08:05Z</time></trkpt><trkpt lat="43.097340318228724" lon="0.2948849042857617"><ele>473.25</ele><time>2026-04-01T13:08:06Z</time></trkpt><trkpt lat="43.09729234163697" lon="0.29504809940048293"><ele>474.5</ele><time>2026-04-01T13:08:07Z</time></trkpt><trkpt lat="43.09723712698652" lon="0.2952357998403985"><ele>475.75</ele><time>2026-04-01T13:08:08Z</time></trkpt><trkpt lat="43.097180255826956" lon="0.29542913153763345"><ele>477.0</ele><time>2026-04-01T13:08:09Z</time></trkpt><trkpt lat="43.09713030218009" lon="0.29563802106601206"><ele>478.75</ele><time>2026-04-01T13:08:10Z</time></trkpt><trkpt lat="43.09707654513474" lon="0.29583116128470066"><ele>480.5</ele><time>2026-04-01T13:08:11Z</time></trkpt><trkpt lat="43.09703840569446" lon="0.29601457080767485"><ele>482.25</ele><time>2026-04-01T13:08:12Z</time></trkpt><trkpt lat="43.09701206616159" lon="0.29617310068912284"><ele>484.0</ele><time>2026-04-01T13:08:13Z</time></trkpt><trkpt lat="43.09701609215301" lon="0.2963224573723604"><ele>483.75</ele><time>2026-04-01T13:08:14Z</time></trkpt><trkpt lat="43.09706367126218" lon="0.29646073226005343"><ele>483.5</ele><time>2026-04-01T13:08:15Z</time></trkpt><trkpt lat="43.0971275769776" lon="0.29660055736607954"><ele>483.25</ele><time>2026-04-01T13:08:16Z</time></trkpt><trkpt lat="43.097212986957516" lon="0.2967497381757953"><ele>483.0</ele><time>2026-04-01T13:08:17Z</time></trkpt><trkpt lat="43.09730987889794" lon="0.2969240104585325"><ele>483.0</ele><time>2026-04-01T13:08:18Z</time></trkpt><trkpt lat="43.0974087120081" lon="0.2971139272890172"><ele>483.0</ele><time>2026-04-01T13:08:19Z</time></trkpt><trkpt lat="43.09750031111422" lon="0.2972897493032149"><ele>483.0</ele><time>2026-04-01T13:08:20Z</time></trkpt><trkpt lat="43.097575899474485" lon="0.29745307962230955"><ele>485.0</ele><time>2026-04-01T13:08:21Z</time></trkpt><trkpt lat="43.09760527436183" lon="0.29761803464033687"><ele>486.99999999999994</ele><time>2026-04-01T13:08:22Z</time></trkpt><trkpt lat="43.09762959820958" lon="0.29776733048302306"><ele>488.99999999999994</ele><time>2026-04-01T13:08:23Z</time></trkpt><trkpt lat="43.09761032804245" lon="0.29790153858782237"><ele>491.0</ele><time>2026-04-01T13:08:24Z</time></trkpt><trkpt lat="43.09756775459468" lon="0.2980316047849165"><ele>493.0</ele><time>2026-04-01T13:08:25Z</time></trkpt><trkpt lat="43.09751068035031" lon="0.29820239319740516"><ele>493.33333333333337</ele><time>2026-04-01T13:08:26Z</time></trkpt><trkpt lat="43.09745013352222" lon="0.2983932444490191"><ele>493.66666666666663</ele><time>2026-04-01T13:08:27Z</time></trkpt><trkpt lat="43.097371856271806" lon="0.2985964202177883"><ele>494.0</ele><time>2026-04-01T13:08:28Z</time></trkpt><trkpt lat="43.09732587610617" lon="0.2987725943366446"><ele>494.5</ele><time>2026-04-01T13:08:29Z</time></trkpt><trkpt lat="43.09727546762719" lon="0.2989454273921422"><ele>495.0</ele><time>2026-04-01T13:08:30Z</time></trkpt><trkpt lat="43.09721528758555" lon="0.2991172836315972"><ele>495.5</ele><time>2026-04-01T13:08:31Z</time></trkpt><trkpt lat="43.09714161946645" lon="0.29933351038903133"><ele>496.0</ele><time>2026-04-01T13:08:32Z</time></trkpt><trkpt lat="43.09706222419371" lon="0.299554341948632"><ele>498.33333333333337</ele><time>2026-04-01T13:08:33Z</time></trkpt><trkpt lat="43.09698189644368" lon="0.299761871851021"><ele>500.66666666666663</ele><time>2026-04-01T13:08:34Z</time></trkpt><trkpt lat="43.09691957254496" lon="0.2999470352427841"><ele>503.0</ele><time>2026-04-01T13:08:35Z</time></trkpt><trkpt lat="43.09686138350506" lon="0.3001136000519314"><ele>503.0</ele><time>2026-04-01T13:08:36Z</time></trkpt><trkpt lat="43.09682461132219" lon="0.30028619237250054"><ele>503.0</ele><time>2026-04-01T13:08:37Z</time></trkpt><trkpt lat="43.09682506280283" lon="0.3004835994530048"><ele>503.0</ele><time>2026-04-01T13:08:38Z</time></trkpt><trkpt lat="43.09684024976772" lon="0.30070301964116536"><ele>503.0</ele><time>2026-04-01T13:08:39Z</time></trkpt><trkpt lat="43.09686650543271" lon="0.300935961974938"><ele>505.0</ele><time>2026-04-01T13:08:40Z</time></trkpt><trkpt lat="43.09688612565747" lon="0.30117253766164376"><ele>507.0</ele><time>2026-04-01T13:08:41Z</time></trkpt><trkpt lat="43.0968912542042" lon="0.3014178160593109"><ele>509.0</ele><time>2026-04-01T13:08:42Z</time></trkpt><trkpt lat="43.09688039653615" lon="0.3016569506284641"><ele>511.0</ele><time>2026-04-01T13:08:43Z</time></trkpt><trkpt lat="43.0968701993842" lon="0.30190590708358916"><ele>513.0</ele><time>2026-04-01T13:08:44Z</time></trkpt><trkpt lat="43.09686088005393" lon="0.30216490078501707"><ele>515.0</ele><time>2026-04-01T13:08:45Z</time></trkpt><trkpt lat="43.096852835073356" lon="0.3024151035958513"><ele>516.6666666666666</ele><time>2026-04-01T13:08:46Z</time></trkpt><trkpt lat="43.09684292216446" lon="0.30263669089641404"><ele>518.3333333333334</ele><time>2026-04-01T13:08:47Z</time></trkpt><trkpt lat="43.09684240465486" lon="0.3028498409971499"><ele>520.0</ele><time>2026-04-01T13:08:48Z</time></trkpt><trkpt lat="43.0968616893855" lon="0.3030641836923789"><ele>521.0</ele><time>2026-04-01T13:08:49Z</time></trkpt><trkpt lat="43.0968920860829" lon="0.303281491602753"><ele>522.0</ele><time>2026-04-01T13:08:50Z</time></trkpt><trkpt lat="43.09690012530569" lon="0.3035068428148902"><ele>523.0</ele><time>2026-04-01T13:08:51Z</time></trkpt><trkpt lat="43.096871268906725" lon="0.30373170641179914"><ele>524.0</ele><time>2026-04-01T13:08:52Z</time></trkpt><trkpt lat="43.096844703002624" lon="0.3039512012334588"><ele>525.0</ele><time>2026-04-01T13:08:53Z</time></trkpt><trkpt lat="43.09680334095696" lon="0.3041636651383052"><ele>526.0</ele><time>2026-04-01T13:08:54Z</time></trkpt><trkpt lat="43.09676081069818" lon="0.30437931832763565"><ele>526.0</ele><time>2026-04-01T13:08:55Z</time></trkpt><trkpt lat="43.09672180673137" lon="0.3045909248649716"><ele>526.0</ele><time>2026-04-01T13:08:56Z</time></trkpt><trkpt lat="43.09668627571327" lon="0.30480408648668655"><ele>526.0</ele><time>2026-04-01T13:08:57Z</time></trkpt><trkpt lat="43.09666360922305" lon="0.3050372932686641"><ele>530.3333333333334</ele><time>2026-04-01T13:08:58Z</time></trkpt><trkpt lat="43.096665946951646" lon="0.3052657790737953"><ele>534.6666666666666</ele><time>2026-04-01T13:08:59Z</time></trkpt><trkpt lat="43.09668495460485" lon="0.30548510017919733"><ele>539.0</ele><time>2026-04-01T13:09:00Z</time></trkpt><trkpt lat="43.09669146729251" lon="0.3057064366510526"><ele>541.25</ele><time>2026-04-01T13:09:01Z</time></trkpt><trkpt lat="43.09669142411934" lon="0.30594805735291963"><ele>543.5</ele><time>2026-04-01T13:09:02Z</time></trkpt><trkpt lat="43.09669850724181" lon="0.3061437025134309"><ele>545.75</ele><time>2026-04-01T13:09:03Z</time></trkpt><trkpt lat="43.09669844471761" lon="0.3062944120410492"><ele>548.0</ele><time>2026-04-01T13:09:04Z</time></trkpt><trkpt lat="43.096682474911056" lon="0.3063977028851318"><ele>547.6666666666666</ele><time>2026-04-01T13:09:05Z</time></trkpt><trkpt lat="43.096633224382586" lon="0.30646700810780975"><ele>547.3333333333333</ele><time>2026-04-01T13:09:06Z</time></trkpt><trkpt lat="43.09656824174217" lon="0.306481337561475"><ele>547.0</ele><time>2026-04-01T13:09:07Z</time></trkpt><trkpt lat="43.09649960664109" lon="0.30644919204114407"><ele>546.6666666666666</ele><time>2026-04-01T13:09:08Z</time></trkpt><trkpt lat="43.09645247265074" lon="0.30635421325980644"><ele>546.3333333333334</ele><time>2026-04-01T13:09:09Z</time></trkpt><trkpt lat="43.09640150122814" lon="0.30623966355494364"><ele>546.0</ele><time>2026-04-01T13:09:10Z</time></trkpt><trkpt lat="43.096322631124615" lon="0.30612660762741883"><ele>546.0</ele><time>2026-04-01T13:09:11Z</time></trkpt><trkpt lat="43.09625529509332" lon="0.3060370349516231"><ele>546.0</ele><time>2026-04-01T13:09:12Z</time></trkpt><trkpt lat="43.09617141683035" lon="0.3060109986378846"><ele>546.0</ele><time>2026-04-01T13:09:13Z</time></trkpt><trkpt lat="43.09609030739192" lon="0.30605565724672473"><ele>546.0</ele><time>2026-04-01T13:09:14Z</time></trkpt><trkpt lat="43.096028223265144" lon="0.3061415153164053"><ele>546.0</ele><time>2026-04-01T13:09:15Z</time></trkpt><trkpt lat="43.096028586746854" lon="0.30627399094936364"><ele>546.0</ele><time>2026-04-01T13:09:16Z</time></trkpt><trkpt lat="43.09605195425307" lon="0.3064109606205215"><ele>546.0</ele><time>2026-04-01T13:09:17Z</time></trkpt><trkpt lat="43.09608290056078" lon="0.30657888404280287"><ele>546.0</ele><time>2026-04-01T13:09:18Z</time></trkpt><trkpt lat="43.09607257147049" lon="0.30676650233447705"><ele>546.0</ele><time>2026-04-01T13:09:19Z</time></trkpt><trkpt lat="43.09606702859723" lon="0.30698059080867146"><ele>550.0</ele><time>2026-04-01T13:09:20Z</time></trkpt><trkpt lat="43.09603973653858" lon="0.3072203023015664"><ele>554.0</ele><time>2026-04-01T13:09:21Z</time></trkpt><trkpt lat="43.096018020724095" lon="0.30743955664421735"><ele>558.0</ele><time>2026-04-01T13:09:22Z</time></trkpt><trkpt lat="43.09598711183903" lon="0.3076786692077335"><ele>560.3333333333334</ele><time>2026-04-01T13:09:23Z</time></trkpt><trkpt lat="43.095943993544836" lon="0.3079267596582506"><ele>562.6666666666667</ele><time>2026-04-01T13:09:24Z</time></trkpt><trkpt lat="43.09589758178595" lon="0.30818391347166346"><ele>565.0</ele><time>2026-04-01T13:09:25Z</time></trkpt><trkpt lat="43.09585381449428" lon="0.3084517853122917"><ele>566.0</ele><time>2026-04-01T13:09:26Z</time></trkpt><trkpt lat="43.095818912078116" lon="0.3087131225380834"><ele>567.0</ele><time>2026-04-01T13:09:27Z</time></trkpt><trkpt lat="43.09579864965944" lon="0.3089710810553286"><ele>568.0</ele><time>2026-04-01T13:09:28Z</time></trkpt><trkpt lat="43.09578780470231" lon="0.30923030306147425"><ele>569.0</ele><time>2026-04-01T13:09:29Z</time></trkpt><trkpt lat="43.09577403289212" lon="0.30948647586429817"><ele>570.0</ele><time>2026-04-01T13:09:30Z</time></trkpt><trkpt lat="43.09575425501014" lon="0.3097423845224426"><ele>571.0</ele><time>2026-04-01T13:09:31Z</time></trkpt><trkpt lat="43.09573133388452" lon="0.30999171343724896"><ele>571.6666666666667</ele><time>2026-04-01T13:09:32Z</time></trkpt><trkpt lat="43.095705339720226" lon="0.3102335868814003"><ele>572.3333333333334</ele><time>2026-04-01T13:09:33Z</time></trkpt><trkpt lat="43.09567826805506" lon="0.31046834272993135"><ele>573.0</ele><time>2026-04-01T13:09:34Z</time></trkpt><trkpt lat="43.09565215812861" lon="0.31070714318971315"><ele>575.6666666666666</ele><time>2026-04-01T13:09:35Z</time></trkpt><trkpt lat="43.09563381497066" lon="0.31096241032364397"><ele>578.3333333333333</ele><time>2026-04-01T13:09:36Z</time></trkpt><trkpt lat="43.09562197665104" lon="0.31120515900929707"><ele>581.0</ele><time>2026-04-01T13:09:37Z</time></trkpt><trkpt lat="43.095614896907854" lon="0.3114514698440232"><ele>583.6666666666666</ele><time>2026-04-01T13:09:38Z</time></trkpt><trkpt lat="43.09561264662682" lon="0.31169730312104227"><ele>586.3333333333334</ele><time>2026-04-01T13:09:39Z</time></trkpt><trkpt lat="43.09561074322328" lon="0.3119437445697931"><ele>589.0</ele><time>2026-04-01T13:09:40Z</time></trkpt><trkpt lat="43.095600415278874" lon="0.31219508844157345"><ele>590.0</ele><time>2026-04-01T13:09:41Z</time></trkpt><trkpt lat="43.095590312040954" lon="0.3124469479441461"><ele>591.0</ele><time>2026-04-01T13:09:42Z</time></trkpt><trkpt lat="43.09557515951146" lon="0.3126979040447218"><ele>592.0</ele><time>2026-04-01T13:09:43Z</time></trkpt><trkpt lat="43.09555572010092" lon="0.3129447062761134"><ele>593.6666666666667</ele><time>2026-04-01T13:09:44Z</time></trkpt><trkpt lat="43.09553875073237" lon="0.3131767490969357"><ele>595.3333333333334</ele><time>2026-04-01T13:09:45Z</time></trkpt><trkpt lat="43.095528536196426" lon="0.3133919890403977"><ele>597.0</ele><time>2026-04-01T13:09:46Z</time></trkpt><trkpt lat="43.09551969842567" lon="0.31359069122802746"><ele>597.0</ele><time>2026-04-01T13:09:47Z</time></trkpt><trkpt lat="43.09550591557261" lon="0.31377243526509496"><ele>597.0</ele><time>2026-04-01T13:09:48Z</time></trkpt><trkpt lat="43.09545151003003" lon="0.31393667742608206"><ele>597.0</ele><time>2026-04-01T13:09:49Z</time></trkpt><trkpt lat="43.09538310963523" lon="0.31410961612410204"><ele>597.0</ele><time>2026-04-01T13:09:50Z</time></trkpt><trkpt lat="43.09531928795262" lon="0.31431154697616026"><ele>598.0</ele><time>2026-04-01T13:09:51Z</time></trkpt><trkpt lat="43.095241085809725" lon="0.31449596820793807"><ele>599.0</ele><time>2026-04-01T13:09:52Z</time></trkpt><trkpt lat="43.09516727621321" lon="0.31467840982611467"><ele>600.0</ele><time>2026-04-01T13:09:53Z</time></trkpt><trkpt lat="43.095103705873726" lon="0.31485970654287654"><ele>601.5</ele><time>2026-04-01T13:09:54Z</time></trkpt><trkpt lat="43.095052125695744" lon="0.3150334781073397"><ele>603.0</ele><time>2026-04-01T13:09:55Z</time></trkpt><trkpt lat="43.09500940802552" lon="0.31520569351647976"><ele>604.5</ele><time>2026-04-01T13:09:56Z</time></trkpt><trkpt lat="43.094980386686636" lon="0.31535988204687104"><ele>606.0</ele><time>2026-04-01T13:09:57Z</time></trkpt><trkpt lat="43.094955721702014" lon="0.3155129707406596"><ele>605.75</ele><time>2026-04-01T13:09:58Z</time></trkpt><trkpt lat="43.094926361231316" lon="0.3156824235575988"><ele>605.5</ele><time>2026-04-01T13:09:59Z</time></trkpt><trkpt lat="43.09489429917742" lon="0.31585624448860516"><ele>605.25</ele><time>2026-04-01T13:10:00Z</time></trkpt><trkpt lat="43.09486089292389" lon="0.3160345320915458"><ele>605.0</ele><time>2026-04-01T13:10:01Z</time></trkpt><trkpt lat="43.09482989757155" lon="0.316213561387473"><ele>605.0</ele><time>2026-04-01T13:10:02Z</time></trkpt><trkpt lat="43.09480350717994" lon="0.3163889063278725"><ele>605.0</ele><time>2026-04-01T13:10:03Z</time></trkpt><trkpt lat="43.09477332638324" lon="0.31653606631203884"><ele>605.0</ele><time>2026-04-01T13:10:04Z</time></trkpt><trkpt lat="43.09475557379321" lon="0.3166510170514644"><ele>605.0</ele><time>2026-04-01T13:10:05Z</time></trkpt><trkpt lat="43.09475048796195" lon="0.3167479987375424"><ele>605.0</ele><time>2026-04-01T13:10:06Z</time></trkpt><trkpt lat="43.09482124525521" lon="0.3168650639067193"><ele>605.75</ele><time>2026-04-01T13:10:08Z</time></trkpt><trkpt lat="43.09489092599318" lon="0.31685420249471136"><ele>606.5</ele><time>2026-04-01T13:10:09Z</time></trkpt><trkpt lat="43.09498420143329" lon="0.3168151517974668"><ele>607.25</ele><time>2026-04-01T13:10:10Z</time></trkpt><trkpt lat="43.095105613435365" lon="0.3167498407835285"><ele>608.0</ele><time>2026-04-01T13:10:11Z</time></trkpt><trkpt lat="43.09526402000636" lon="0.31670976703805004"><ele>609.0</ele><time>2026-04-01T13:10:12Z</time></trkpt><trkpt lat="43.09543606196862" lon="0.31664487597470625"><ele>610.0</ele><time>2026-04-01T13:10:13Z</time></trkpt><trkpt lat="43.09562022585773" lon="0.31654482281917656"><ele>611.0</ele><time>2026-04-01T13:10:14Z</time></trkpt><trkpt lat="43.09580450560348" lon="0.3164428106947053"><ele>609.3333333333333</ele><time>2026-04-01T13:10:15Z</time></trkpt><trkpt lat="43.0959793064104" lon="0.31631959561833867"><ele>607.6666666666666</ele><time>2026-04-01T13:10:16Z</time></trkpt><trkpt lat="43.096151322795464" lon="0.31618240146194493"><ele>606.0</ele><time>2026-04-01T13:10:17Z</time></trkpt><trkpt lat="43.09634345407065" lon="0.316063763604537"><ele>606.0</ele><time>2026-04-01T13:10:18Z</time></trkpt><trkpt lat="43.096531383834844" lon="0.3159199802459564"><ele>606.0</ele><time>2026-04-01T13:10:19Z</time></trkpt><trkpt lat="43.096728014821096" lon="0.3157657464075369"><ele>606.0</ele><time>2026-04-01T13:10:20Z</time></trkpt><trkpt lat="43.09691983280859" lon="0.31558625619056"><ele>603.0</ele><time>2026-04-01T13:10:21Z</time></trkpt><trkpt lat="43.09712390459773" lon="0.3154151607627053"><ele>600.0</ele><time>2026-04-01T13:10:22Z</time></trkpt><trkpt lat="43.0973144879644" lon="0.31524923380309866"><ele>601.0</ele><time>2026-04-01T13:10:23Z</time></trkpt><trkpt lat="43.09750466079966" lon="0.31508213581683236"><ele>602.0</ele><time>2026-04-01T13:10:24Z</time></trkpt><trkpt lat="43.09768742534708" lon="0.314927603459482"><ele>603.0</ele><time>2026-04-01T13:10:25Z</time></trkpt><trkpt lat="43.09786244558309" lon="0.3147823662642002"><ele>603.3333333333334</ele><time>2026-04-01T13:10:26Z</time></trkpt><trkpt lat="43.098023083111784" lon="0.3146489591072185"><ele>603.6666666666667</ele><time>2026-04-01T13:10:27Z</time></trkpt><trkpt lat="43.09817529908249" lon="0.3145229968029555"><ele>604.0</ele><time>2026-04-01T13:10:28Z</time></trkpt><trkpt lat="43.09833854685382" lon="0.31438707066266086"><ele>604.0</ele><time>2026-04-01T13:10:29Z</time></trkpt><trkpt lat="43.09850141875457" lon="0.31425342515232046"><ele>604.0</ele><time>2026-04-01T13:10:30Z</time></trkpt><trkpt lat="43.09867151660284" lon="0.3141128769781083"><ele>604.0</ele><time>2026-04-01T13:10:31Z</time></trkpt><trkpt lat="43.09883253836845" lon="0.3139764573634897"><ele>604.3333333333334</ele><time>2026-04-01T13:10:32Z</time></trkpt><trkpt lat="43.098990422598035" lon="0.3138388029228897"><ele>604.6666666666666</ele><time>2026-04-01T13:10:33Z</time></trkpt><trkpt lat="43.0991365606927" lon="0.3137090878793731"><ele>605.0</ele><time>2026-04-01T13:10:34Z</time></trkpt><trkpt lat="43.099258801912676" lon="0.31360400401040084"><ele>605.0</ele><time>2026-04-01T13:10:35Z</time></trkpt><trkpt lat="43.09936452010307" lon="0.31351592493567276"><ele>605.0</ele><time>2026-04-01T13:10:36Z</time></trkpt><trkpt lat="43.099465077195816" lon="0.3134358064409352"><ele>605.0</ele><time>2026-04-01T13:10:37Z</time></trkpt><trkpt lat="43.099557051523725" lon="0.31335723708655927"><ele>605.0</ele><time>2026-04-01T13:10:38Z</time></trkpt><trkpt lat="43.09964812259998" lon="0.3133111648251858"><ele>605.0</ele><time>2026-04-01T13:10:39Z</time></trkpt><trkpt lat="43.09971912920611" lon="0.3132550845167016"><ele>605.0</ele><time>2026-04-01T13:10:40Z</time></trkpt><trkpt lat="43.09977917983168" lon="0.3132087136792281"><ele>605.0</ele><time>2026-04-01T13:10:41Z</time></trkpt><trkpt lat="43.099832990335045" lon="0.31314480901534736"><ele>605.0</ele><time>2026-04-01T13:10:42Z</time></trkpt><trkpt lat="43.0999088974666" lon="0.31309523104819265"><ele>605.0</ele><time>2026-04-01T13:10:43Z</time></trkpt><trkpt lat="43.10000230251031" lon="0.31303059800934796"><ele>605.0</ele><time>2026-04-01T13:10:44Z</time></trkpt><trkpt lat="43.100109399165746" lon="0.31295749394917743"><ele>605.0</ele><time>2026-04-01T13:10:45Z</time></trkpt><trkpt lat="43.100225604001665" lon="0.31288081494476766"><ele>605.25</ele><time>2026-04-01T13:10:46Z</time></trkpt><trkpt lat="43.10035484355166" lon="0.3128050139398165"><ele>605.5</ele><time>2026-04-01T13:10:47Z</time></trkpt><trkpt lat="43.10048698625241" lon="0.31274383152685825"><ele>605.75</ele><time>2026-04-01T13:10:48Z</time></trkpt><trkpt lat="43.10063111792879" lon="0.3126921129434744"><ele>606.0</ele><time>2026-04-01T13:10:49Z</time></trkpt><trkpt lat="43.10078371790689" lon="0.3126470409070399"><ele>606.0</ele><time>2026-04-01T13:10:50Z</time></trkpt><trkpt lat="43.10094089232594" lon="0.31259618494827146"><ele>606.0</ele><time>2026-04-01T13:10:51Z</time></trkpt><trkpt lat="43.101098036418634" lon="0.3125501802278165"><ele>606.0</ele><time>2026-04-01T13:10:52Z</time></trkpt><trkpt lat="43.101238342817226" lon="0.3125165305221904"><ele>606.0</ele><time>2026-04-01T13:10:53Z</time></trkpt><trkpt lat="43.10135750882649" lon="0.3124775042719309"><ele>606.0</ele><time>2026-04-01T13:10:54Z</time></trkpt><trkpt lat="43.101458352990704" lon="0.312441455894443"><ele>606.0</ele><time>2026-04-01T13:10:55Z</time></trkpt><trkpt lat="43.10156363773478" lon="0.31239786371242007"><ele>606.0</ele><time>2026-04-01T13:10:56Z</time></trkpt><trkpt lat="43.10168275217553" lon="0.31234190522126404"><ele>606.2</ele><time>2026-04-01T13:10:57Z</time></trkpt><trkpt lat="43.10179914149309" lon="0.3123107138125504"><ele>606.4000000000001</ele><time>2026-04-01T13:10:58Z</time></trkpt><trkpt lat="43.101894779187305" lon="0.3122702404492963"><ele>606.6</ele><time>2026-04-01T13:10:59Z</time></trkpt><trkpt lat="43.10197174057667" lon="0.3122418734955714"><ele>606.8000000000001</ele><time>2026-04-01T13:11:00Z</time></trkpt><trkpt lat="43.102036056495216" lon="0.31220925069180544"><ele>607.0</ele><time>2026-04-01T13:11:02Z</time></trkpt><trkpt lat="43.102035463805485" lon="0.31204493453927884"><ele>606.4</ele><time>2026-04-01T13:11:03Z</time></trkpt><trkpt lat="43.10204607983247" lon="0.31221141535027697"><ele>605.8000000000001</ele><time>2026-04-01T13:11:05Z</time></trkpt><trkpt lat="43.10210988510666" lon="0.31219162370558684"><ele>605.2</ele><time>2026-04-01T13:11:11Z</time></trkpt><trkpt lat="43.102206026709204" lon="0.3121641283678273"><ele>604.6</ele><time>2026-04-01T13:11:12Z</time></trkpt><trkpt lat="43.10230175313772" lon="0.3121362535628137"><ele>604.0</ele><time>2026-04-01T13:11:13Z</time></trkpt><trkpt lat="43.102393418218796" lon="0.31210389796756616"><ele>604.4</ele><time>2026-04-01T13:11:14Z</time></trkpt><trkpt lat="43.102470357963625" lon="0.3120745075589586"><ele>604.8</ele><time>2026-04-01T13:11:15Z</time></trkpt><trkpt lat="43.10253458278105" lon="0.3120481518080038"><ele>605.2</ele><time>2026-04-01T13:11:16Z</time></trkpt><trkpt lat="43.10263857039207" lon="0.31200123231760474"><ele>605.6</ele><time>2026-04-01T13:11:18Z</time></trkpt><trkpt lat="43.10276794269737" lon="0.3119580452846092"><ele>606.0</ele><time>2026-04-01T13:11:20Z</time></trkpt><trkpt lat="43.10283943730054" lon="0.31193956518641375"><ele>606.0</ele><time>2026-04-01T13:11:21Z</time></trkpt><trkpt lat="43.10291912107131" lon="0.31196177548846143"><ele>606.0</ele><time>2026-04-01T13:11:22Z</time></trkpt><trkpt lat="43.10298809657575" lon="0.3119728300187962"><ele>606.0</ele><time>2026-04-01T13:11:23Z</time></trkpt><trkpt lat="43.10307891417814" lon="0.31200266627422996"><ele>606.0</ele><time>2026-04-01T13:11:25Z</time></trkpt><trkpt lat="43.103023587646184" lon="0.31226180188323416"><ele>606.0</ele><time>2026-04-01T13:11:31Z</time></trkpt><trkpt lat="43.102991609983164" lon="0.3124129359670434"><ele>606.75</ele><time>2026-04-01T13:11:32Z</time></trkpt><trkpt lat="43.102958076632994" lon="0.3125717304514027"><ele>607.5</ele><time>2026-04-01T13:11:33Z</time></trkpt><trkpt lat="43.10292436798035" lon="0.31274971861519274"><ele>608.25</ele><time>2026-04-01T13:11:34Z</time></trkpt><trkpt lat="43.10288458420515" lon="0.3129394255100616"><ele>609.0</ele><time>2026-04-01T13:11:35Z</time></trkpt><trkpt lat="43.10284420105633" lon="0.313129555622897"><ele>609.0</ele><time>2026-04-01T13:11:36Z</time></trkpt><trkpt lat="43.10280631220565" lon="0.31330528272833597"><ele>609.0</ele><time>2026-04-01T13:11:37Z</time></trkpt><trkpt lat="43.1027686824289" lon="0.31348878294331534"><ele>609.0</ele><time>2026-04-01T13:11:38Z</time></trkpt><trkpt lat="43.10273030789539" lon="0.31367522149436977"><ele>609.0</ele><time>2026-04-01T13:11:39Z</time></trkpt><trkpt lat="43.10269479596681" lon="0.3138628718291872"><ele>609.0</ele><time>2026-04-01T13:11:40Z</time></trkpt><trkpt lat="43.10265492596649" lon="0.31405311198385866"><ele>609.0</ele><time>2026-04-01T13:11:41Z</time></trkpt><trkpt lat="43.10261216635976" lon="0.3142443950617717"><ele>609.0</ele><time>2026-04-01T13:11:42Z</time></trkpt><trkpt lat="43.102573699527895" lon="0.31443544890618913"><ele>609.0</ele><time>2026-04-01T13:11:43Z</time></trkpt><trkpt lat="43.10253733778553" lon="0.3146236046344488"><ele>609.25</ele><time>2026-04-01T13:11:44Z</time></trkpt><trkpt lat="43.102498440010315" lon="0.31481093215843414"><ele>609.5</ele><time>2026-04-01T13:11:45Z</time></trkpt><trkpt lat="43.1024647827987" lon="0.31499548762416224"><ele>609.75</ele><time>2026-04-01T13:11:46Z</time></trkpt><trkpt lat="43.102433264734195" lon="0.3151794718269204"><ele>610.0</ele><time>2026-04-01T13:11:47Z</time></trkpt><trkpt lat="43.102393708409295" lon="0.3153556933829397"><ele>610.75</ele><time>2026-04-01T13:11:48Z</time></trkpt><trkpt lat="43.10235223511374" lon="0.31552941409064034"><ele>611.5</ele><time>2026-04-01T13:11:49Z</time></trkpt><trkpt lat="43.102310653459085" lon="0.31570345267515176"><ele>612.25</ele><time>2026-04-01T13:11:50Z</time></trkpt><trkpt lat="43.10227178685205" lon="0.3158726679714682"><ele>613.0</ele><time>2026-04-01T13:11:51Z</time></trkpt><trkpt lat="43.102244434754056" lon="0.31603989279509215"><ele>613.4</ele><time>2026-04-01T13:11:52Z</time></trkpt><trkpt lat="43.102230021799215" lon="0.3161887724650306"><ele>613.8</ele><time>2026-04-01T13:11:53Z</time></trkpt><trkpt lat="43.10222215648254" lon="0.31632701843852845"><ele>614.2</ele><time>2026-04-01T13:11:54Z</time></trkpt><trkpt lat="43.102217263352394" lon="0.3164713849350437"><ele>614.6</ele><time>2026-04-01T13:11:55Z</time></trkpt><trkpt lat="43.10221243125342" lon="0.31662130955241524"><ele>615.0</ele><time>2026-04-01T13:11:56Z</time></trkpt><trkpt lat="43.10220945267627" lon="0.3167546799050474"><ele>615.4</ele><time>2026-04-01T13:11:57Z</time></trkpt><trkpt lat="43.10221084906995" lon="0.3168723319756097"><ele>615.8</ele><time>2026-04-01T13:11:58Z</time></trkpt><trkpt lat="43.102219938369075" lon="0.31701393209089485"><ele>616.2</ele><time>2026-04-01T13:11:59Z</time></trkpt><trkpt lat="43.10224721310006" lon="0.31715662612711254"><ele>616.6</ele><time>2026-04-01T13:12:00Z</time></trkpt><trkpt lat="43.102294854397115" lon="0.3173024752703657"><ele>617.0</ele><time>2026-04-01T13:12:01Z</time></trkpt><trkpt lat="43.1023581862288" lon="0.31744360928151527"><ele>616.25</ele><time>2026-04-01T13:12:02Z</time></trkpt><trkpt lat="43.102429200833164" lon="0.3175880073248067"><ele>615.5</ele><time>2026-04-01T13:12:03Z</time></trkpt><trkpt lat="43.10250431532746" lon="0.31774943595536065"><ele>614.75</ele><time>2026-04-01T13:12:04Z</time></trkpt><trkpt lat="43.10259154590917" lon="0.31793111822925285"><ele>614.0</ele><time>2026-04-01T13:12:05Z</time></trkpt><trkpt lat="43.102680155495825" lon="0.3181089189622865"><ele>613.0</ele><time>2026-04-01T13:12:06Z</time></trkpt><trkpt lat="43.102770781312934" lon="0.3182960648325448"><ele>612.0</ele><time>2026-04-01T13:12:07Z</time></trkpt><trkpt lat="43.10286111397171" lon="0.3184897119174491"><ele>611.0</ele><time>2026-04-01T13:12:08Z</time></trkpt><trkpt lat="43.10295493549008" lon="0.31868665452825723"><ele>611.0</ele><time>2026-04-01T13:12:09Z</time></trkpt><trkpt lat="43.10304825630448" lon="0.3188829377825299"><ele>611.0</ele><time>2026-04-01T13:12:10Z</time></trkpt><trkpt lat="43.10313916242087" lon="0.3190824724275149"><ele>611.0</ele><time>2026-04-01T13:12:11Z</time></trkpt><trkpt lat="43.10323520276573" lon="0.31929586267209564"><ele>610.0</ele><time>2026-04-01T13:12:12Z</time></trkpt><trkpt lat="43.10333769625086" lon="0.31951156415650794"><ele>609.0</ele><time>2026-04-01T13:12:13Z</time></trkpt><trkpt lat="43.10344347002936" lon="0.3197302050526179"><ele>608.0</ele><time>2026-04-01T13:12:14Z</time></trkpt><trkpt lat="43.10354755465178" lon="0.31994664290797814"><ele>607.0</ele><time>2026-04-01T13:12:15Z</time></trkpt><trkpt lat="43.103654656265626" lon="0.32016839300850497"><ele>606.0</ele><time>2026-04-01T13:12:16Z</time></trkpt><trkpt lat="43.10376322042763" lon="0.3203978295223412"><ele>605.0</ele><time>2026-04-01T13:12:17Z</time></trkpt><trkpt lat="43.10387418393923" lon="0.32062993431158937"><ele>605.0</ele><time>2026-04-01T13:12:18Z</time></trkpt><trkpt lat="43.10398704941097" lon="0.3208641051015665"><ele>605.0</ele><time>2026-04-01T13:12:19Z</time></trkpt><trkpt lat="43.10409870627583" lon="0.32109350274203025"><ele>605.0</ele><time>2026-04-01T13:12:20Z</time></trkpt><trkpt lat="43.104206315503" lon="0.32132090431945665"><ele>605.0</ele><time>2026-04-01T13:12:21Z</time></trkpt><trkpt lat="43.10431059636047" lon="0.3215367393789264"><ele>605.0</ele><time>2026-04-01T13:12:22Z</time></trkpt><trkpt lat="43.104416355704586" lon="0.3217558209576361"><ele>605.0</ele><time>2026-04-01T13:12:23Z</time></trkpt><trkpt lat="43.104518105939064" lon="0.3219736632515542"><ele>605.0</ele><time>2026-04-01T13:12:24Z</time></trkpt><trkpt lat="43.104618267871885" lon="0.32218420155484095"><ele>605.0</ele><time>2026-04-01T13:12:25Z</time></trkpt><trkpt lat="43.104719469395526" lon="0.3223962476521518"><ele>605.0</ele><time>2026-04-01T13:12:26Z</time></trkpt><trkpt lat="43.10482210430479" lon="0.32260792568218083"><ele>604.6666666666666</ele><time>2026-04-01T13:12:27Z</time></trkpt><trkpt lat="43.104916789150295" lon="0.32281607094316533"><ele>604.3333333333334</ele><time>2026-04-01T13:12:28Z</time></trkpt><trkpt lat="43.105009483005176" lon="0.3230107356227495"><ele>604.0</ele><time>2026-04-01T13:12:29Z</time></trkpt><trkpt lat="43.10509551709707" lon="0.3231972326716152"><ele>603.75</ele><time>2026-04-01T13:12:30Z</time></trkpt><trkpt lat="43.10517570167221" lon="0.3233648454369577"><ele>603.5</ele><time>2026-04-01T13:12:31Z</time></trkpt><trkpt lat="43.105245107721515" lon="0.323515472997983"><ele>603.25</ele><time>2026-04-01T13:12:32Z</time></trkpt><trkpt lat="43.1053073933487" lon="0.32365542436903433"><ele>603.0</ele><time>2026-04-01T13:12:33Z</time></trkpt><trkpt lat="43.105362080284344" lon="0.3237867077901435"><ele>602.6666666666666</ele><time>2026-04-01T13:12:34Z</time></trkpt><trkpt lat="43.10540655772447" lon="0.32389836586129184"><ele>602.3333333333334</ele><time>2026-04-01T13:12:35Z</time></trkpt><trkpt lat="43.10543990497969" lon="0.32400827720390885"><ele>602.0</ele><time>2026-04-01T13:12:36Z</time></trkpt><trkpt lat="43.105457788693045" lon="0.32412112018191586"><ele>601.6666666666667</ele><time>2026-04-01T13:12:37Z</time></trkpt><trkpt lat="43.10548167148646" lon="0.32422693604179886"><ele>601.3333333333334</ele><time>2026-04-01T13:12:38Z</time></trkpt><trkpt lat="43.105530205014404" lon="0.3243031329573748"><ele>601.0</ele><time>2026-04-01T13:12:39Z</time></trkpt><trkpt lat="43.105599981240545" lon="0.3243385315880188"><ele>601.0</ele><time>2026-04-01T13:12:40Z</time></trkpt><trkpt lat="43.10566899485689" lon="0.32434654508729394"><ele>601.0</ele><time>2026-04-01T13:12:41Z</time></trkpt><trkpt lat="43.10573739462595" lon="0.32436679903868676"><ele>601.0</ele><time>2026-04-01T13:12:42Z</time></trkpt><trkpt lat="43.105807479384346" lon="0.32441659828613156"><ele>601.0</ele><time>2026-04-01T13:12:43Z</time></trkpt><trkpt lat="43.10588334783669" lon="0.32448876751206673"><ele>601.0</ele><time>2026-04-01T13:12:44Z</time></trkpt><trkpt lat="43.10596874166492" lon="0.3245662942396123"><ele>601.0</ele><time>2026-04-01T13:12:45Z</time></trkpt><trkpt lat="43.10604867162927" lon="0.32464881434092085"><ele>599.6</ele><time>2026-04-01T13:12:46Z</time></trkpt><trkpt lat="43.1061117906056" lon="0.3247441223925037"><ele>598.2</ele><time>2026-04-01T13:12:47Z</time></trkpt><trkpt lat="43.106151475889426" lon="0.3248606029354262"><ele>596.8</ele><time>2026-04-01T13:12:48Z</time></trkpt><trkpt lat="43.10616942900997" lon="0.3250056424560796"><ele>595.4</ele><time>2026-04-01T13:12:49Z</time></trkpt><trkpt lat="43.10616265644498" lon="0.3251629232694258"><ele>594.0</ele><time>2026-04-01T13:12:50Z</time></trkpt><trkpt lat="43.106138498894325" lon="0.32532458812878623"><ele>594.0</ele><time>2026-04-01T13:12:51Z</time></trkpt><trkpt lat="43.10609836410953" lon="0.3254943639011892"><ele>594.0</ele><time>2026-04-01T13:12:52Z</time></trkpt><trkpt lat="43.106053494196395" lon="0.3256767293314743"><ele>594.0</ele><time>2026-04-01T13:12:53Z</time></trkpt><trkpt lat="43.106002715343045" lon="0.32587952607169796"><ele>594.0</ele><time>2026-04-01T13:12:54Z</time></trkpt><trkpt lat="43.10595247255477" lon="0.3261000966663794"><ele>594.6666666666666</ele><time>2026-04-01T13:12:55Z</time></trkpt><trkpt lat="43.105906654296106" lon="0.32630426886004393"><ele>595.3333333333333</ele><time>2026-04-01T13:12:56Z</time></trkpt><trkpt lat="43.10586211565316" lon="0.3264994771838583"><ele>596.0</ele><time>2026-04-01T13:12:57Z</time></trkpt><trkpt lat="43.10581818255046" lon="0.32669648488231606"><ele>596.3333333333333</ele><time>2026-04-01T13:12:58Z</time></trkpt><trkpt lat="43.10577354952766" lon="0.32689251024495786"><ele>596.6666666666666</ele><time>2026-04-01T13:12:59Z</time></trkpt><trkpt lat="43.10572699809795" lon="0.3270909516836274"><ele>597.0</ele><time>2026-04-01T13:13:00Z</time></trkpt><trkpt lat="43.10568315913692" lon="0.32729028912528624"><ele>597.25</ele><time>2026-04-01T13:13:01Z</time></trkpt><trkpt lat="43.105637874344275" lon="0.3274910715009535"><ele>597.5</ele><time>2026-04-01T13:13:02Z</time></trkpt><trkpt lat="43.105590289341926" lon="0.3276842482247021"><ele>597.75</ele><time>2026-04-01T13:13:03Z</time></trkpt><trkpt lat="43.105545517062595" lon="0.3278634259569025"><ele>598.0</ele><time>2026-04-01T13:13:04Z</time></trkpt><trkpt lat="43.10550528537976" lon="0.3280280000827802"><ele>597.75</ele><time>2026-04-01T13:13:05Z</time></trkpt><trkpt lat="43.10547357009678" lon="0.32818944847030973"><ele>597.5</ele><time>2026-04-01T13:13:06Z</time></trkpt><trkpt lat="43.1054445004152" lon="0.3283609281986776"><ele>597.25</ele><time>2026-04-01T13:13:07Z</time></trkpt><trkpt lat="43.10540569504873" lon="0.3285541941839584"><ele>597.0</ele><time>2026-04-01T13:13:08Z</time></trkpt><trkpt lat="43.105355193864376" lon="0.32875592222217087"><ele>596.5</ele><time>2026-04-01T13:13:09Z</time></trkpt><trkpt lat="43.10531208764869" lon="0.32895551478330654"><ele>596.0</ele><time>2026-04-01T13:13:10Z</time></trkpt><trkpt lat="43.10527380328284" lon="0.3291427547319816"><ele>595.5</ele><time>2026-04-01T13:13:11Z</time></trkpt><trkpt lat="43.10523242217117" lon="0.3293317297416434"><ele>595.0</ele><time>2026-04-01T13:13:12Z</time></trkpt><trkpt lat="43.105190225341346" lon="0.3295211912034376"><ele>595.0</ele><time>2026-04-01T13:13:13Z</time></trkpt><trkpt lat="43.10514948845613" lon="0.3297139892181652"><ele>595.0</ele><time>2026-04-01T13:13:14Z</time></trkpt><trkpt lat="43.10510881594585" lon="0.3299099323527837"><ele>595.0</ele><time>2026-04-01T13:13:15Z</time></trkpt><trkpt lat="43.105066439675895" lon="0.33010424052283605"><ele>595.0</ele><time>2026-04-01T13:13:16Z</time></trkpt><trkpt lat="43.10502420236536" lon="0.3302932329385069"><ele>594.25</ele><time>2026-04-01T13:13:17Z</time></trkpt><trkpt lat="43.104981981082766" lon="0.3304785048848679"><ele>593.5</ele><time>2026-04-01T13:13:18Z</time></trkpt><trkpt lat="43.10493880180623" lon="0.3306601733208067"><ele>592.75</ele><time>2026-04-01T13:13:19Z</time></trkpt><trkpt lat="43.10489680399382" lon="0.3308443053316109"><ele>592.0</ele><time>2026-04-01T13:13:20Z</time></trkpt><trkpt lat="43.104859205431396" lon="0.3310316966434214"><ele>592.0</ele><time>2026-04-01T13:13:21Z</time></trkpt><trkpt lat="43.1048216981388" lon="0.3312221171748534"><ele>592.0</ele><time>2026-04-01T13:13:22Z</time></trkpt><trkpt lat="43.10478270807374" lon="0.3314125212019304"><ele>592.0</ele><time>2026-04-01T13:13:23Z</time></trkpt><trkpt lat="43.10474962460054" lon="0.3316043441916989"><ele>592.0</ele><time>2026-04-01T13:13:24Z</time></trkpt><trkpt lat="43.10471760318274" lon="0.3317977544055666"><ele>591.75</ele><time>2026-04-01T13:13:25Z</time></trkpt><trkpt lat="43.104688378048564" lon="0.33199352179201025"><ele>591.5</ele><time>2026-04-01T13:13:26Z</time></trkpt><trkpt lat="43.10466254825301" lon="0.33218746015810885"><ele>591.25</ele><time>2026-04-01T13:13:27Z</time></trkpt><trkpt lat="43.10463777690142" lon="0.3323765951251528"><ele>591.0</ele><time>2026-04-01T13:13:28Z</time></trkpt><trkpt lat="43.10461524062023" lon="0.3325600106276981"><ele>590.25</ele><time>2026-04-01T13:13:29Z</time></trkpt><trkpt lat="43.10459263263395" lon="0.3327384977476969"><ele>589.5</ele><time>2026-04-01T13:13:30Z</time></trkpt><trkpt lat="43.104577121039405" lon="0.3329138349351772"><ele>588.75</ele><time>2026-04-01T13:13:31Z</time></trkpt><trkpt lat="43.10456292933926" lon="0.33309302642664484"><ele>588.0</ele><time>2026-04-01T13:13:32Z</time></trkpt><trkpt lat="43.104544785151134" lon="0.3332773469882341"><ele>587.5</ele><time>2026-04-01T13:13:33Z</time></trkpt><trkpt lat="43.10452020670131" lon="0.3334659108608687"><ele>587.0</ele><time>2026-04-01T13:13:34Z</time></trkpt><trkpt lat="43.10449729671268" lon="0.33365849645066914"><ele>586.5</ele><time>2026-04-01T13:13:35Z</time></trkpt><trkpt lat="43.10447068115314" lon="0.33385247396657114"><ele>586.0</ele><time>2026-04-01T13:13:36Z</time></trkpt><trkpt lat="43.10444602390532" lon="0.3340366493359634"><ele>585.5</ele><time>2026-04-01T13:13:37Z</time></trkpt><trkpt lat="43.10442811059481" lon="0.3342158987461626"><ele>585.0</ele><time>2026-04-01T13:13:38Z</time></trkpt><trkpt lat="43.10440899291201" lon="0.3343990471567296"><ele>584.5</ele><time>2026-04-01T13:13:39Z</time></trkpt><trkpt lat="43.10439300913607" lon="0.3345861298234439"><ele>584.0</ele><time>2026-04-01T13:13:40Z</time></trkpt><trkpt lat="43.10438751806884" lon="0.3347849955914193"><ele>582.6666666666666</ele><time>2026-04-01T13:13:41Z</time></trkpt><trkpt lat="43.104377481980244" lon="0.3349814530926295"><ele>581.3333333333334</ele><time>2026-04-01T13:13:42Z</time></trkpt><trkpt lat="43.10437006402469" lon="0.33519578251143656"><ele>580.0</ele><time>2026-04-01T13:13:43Z</time></trkpt><trkpt lat="43.104360934297574" lon="0.33541689230831506"><ele>579.0</ele><time>2026-04-01T13:13:44Z</time></trkpt><trkpt lat="43.10435266354028" lon="0.3356455150039776"><ele>578.0</ele><time>2026-04-01T13:13:45Z</time></trkpt><trkpt lat="43.104345074764126" lon="0.3358756950673684"><ele>577.0</ele><time>2026-04-01T13:13:46Z</time></trkpt><trkpt lat="43.10433581844334" lon="0.3361054738463064"><ele>577.0</ele><time>2026-04-01T13:13:47Z</time></trkpt><trkpt lat="43.10432593460889" lon="0.336339887153949"><ele>577.0</ele><time>2026-04-01T13:13:48Z</time></trkpt><trkpt lat="43.10431459702075" lon="0.33658180113490066"><ele>577.0</ele><time>2026-04-01T13:13:49Z</time></trkpt><trkpt lat="43.104301233305264" lon="0.3368236760464386"><ele>576.0</ele><time>2026-04-01T13:13:50Z</time></trkpt><trkpt lat="43.104283351225185" lon="0.33707185757016944"><ele>575.0</ele><time>2026-04-01T13:13:51Z</time></trkpt><trkpt lat="43.104261630222965" lon="0.33731919038413816"><ele>574.0</ele><time>2026-04-01T13:13:52Z</time></trkpt><trkpt lat="43.10423679873504" lon="0.33756684233430245"><ele>573.3333333333334</ele><time>2026-04-01T13:13:53Z</time></trkpt><trkpt lat="43.104210197983086" lon="0.3378139368110659"><ele>572.6666666666666</ele><time>2026-04-01T13:13:54Z</time></trkpt><trkpt lat="43.10417939383121" lon="0.3380607177748684"><ele>572.0</ele><time>2026-04-01T13:13:55Z</time></trkpt><trkpt lat="43.10414924374103" lon="0.33830408731695033"><ele>572.0</ele><time>2026-04-01T13:13:56Z</time></trkpt><trkpt lat="43.1041248359979" lon="0.33854943777809254"><ele>572.0</ele><time>2026-04-01T13:13:57Z</time></trkpt><trkpt lat="43.10410566521325" lon="0.33879377340579775"><ele>572.0</ele><time>2026-04-01T13:13:58Z</time></trkpt><trkpt lat="43.10408858264816" lon="0.33903288668505305"><ele>573.0</ele><time>2026-04-01T13:13:59Z</time></trkpt><trkpt lat="43.104068241794" lon="0.3392711841928548"><ele>574.0</ele><time>2026-04-01T13:14:00Z</time></trkpt><trkpt lat="43.10404844509668" lon="0.33951463399422244"><ele>575.0</ele><time>2026-04-01T13:14:01Z</time></trkpt><trkpt lat="43.104029919570465" lon="0.33975648797722696"><ele>575.6666666666666</ele><time>2026-04-01T13:14:02Z</time></trkpt><trkpt lat="43.10401157381114" lon="0.3400022683920767"><ele>576.3333333333334</ele><time>2026-04-01T13:14:03Z</time></trkpt><trkpt lat="43.10399229736293" lon="0.3402466465271344"><ele>577.0</ele><time>2026-04-01T13:14:04Z</time></trkpt><trkpt lat="43.103972596305276" lon="0.34048795394763376"><ele>578.0</ele><time>2026-04-01T13:14:05Z</time></trkpt><trkpt lat="43.103952177217536" lon="0.3407261158550552"><ele>579.0</ele><time>2026-04-01T13:14:06Z</time></trkpt><trkpt lat="43.10393174039324" lon="0.34096274157981804"><ele>580.0</ele><time>2026-04-01T13:14:07Z</time></trkpt><trkpt lat="43.10391189527028" lon="0.3411971556301165"><ele>580.6666666666667</ele><time>2026-04-01T13:14:08Z</time></trkpt><trkpt lat="43.10389508331981" lon="0.3414297535871904"><ele>581.3333333333334</ele><time>2026-04-01T13:14:09Z</time></trkpt><trkpt lat="43.10387869944203" lon="0.34165978553324006"><ele>582.0</ele><time>2026-04-01T13:14:10Z</time></trkpt><trkpt lat="43.10386206905147" lon="0.3418880087245878"><ele>582.0</ele><time>2026-04-01T13:14:11Z</time></trkpt><trkpt lat="43.10385035562293" lon="0.34210862223191757"><ele>582.0</ele><time>2026-04-01T13:14:12Z</time></trkpt><trkpt lat="43.10384190894842" lon="0.3423260851394197"><ele>582.0</ele><time>2026-04-01T13:14:13Z</time></trkpt><trkpt lat="43.10383953973772" lon="0.34253065582269315"><ele>582.25</ele><time>2026-04-01T13:14:14Z</time></trkpt><trkpt lat="43.103857779064334" lon="0.3427164249525151"><ele>582.5</ele><time>2026-04-01T13:14:15Z</time></trkpt><trkpt lat="43.1038796472079" lon="0.3428982379283791"><ele>582.75</ele><time>2026-04-01T13:14:16Z</time></trkpt><trkpt lat="43.10390691238365" lon="0.34307866656803004"><ele>583.0</ele><time>2026-04-01T13:14:17Z</time></trkpt><trkpt lat="43.10393873138593" lon="0.3432530874366115"><ele>583.75</ele><time>2026-04-01T13:14:18Z</time></trkpt><trkpt lat="43.10396994270899" lon="0.34342200541377"><ele>584.5</ele><time>2026-04-01T13:14:19Z</time></trkpt><trkpt lat="43.10400190800879" lon="0.3435827945618803"><ele>585.25</ele><time>2026-04-01T13:14:20Z</time></trkpt><trkpt lat="43.10403150299335" lon="0.34372793157133147"><ele>586.0</ele><time>2026-04-01T13:14:21Z</time></trkpt><trkpt lat="43.104063253507725" lon="0.34386260399655333"><ele>585.5</ele><time>2026-04-01T13:14:22Z</time></trkpt><trkpt lat="43.104091429366676" lon="0.34398795232198626"><ele>585.0</ele><time>2026-04-01T13:14:23Z</time></trkpt><trkpt lat="43.10411893871011" lon="0.34412313874050043"><ele>584.5</ele><time>2026-04-01T13:14:24Z</time></trkpt><trkpt lat="43.10413486497517" lon="0.34424357420799967"><ele>584.0</ele><time>2026-04-01T13:14:25Z</time></trkpt><trkpt lat="43.10413117707213" lon="0.34435690678283015"><ele>583.5</ele><time>2026-04-01T13:14:26Z</time></trkpt><trkpt lat="43.104110815805946" lon="0.3444568175043239"><ele>583.0</ele><time>2026-04-01T13:14:27Z</time></trkpt><trkpt lat="43.10408661827212" lon="0.34455572263629125"><ele>583.5</ele><time>2026-04-01T13:14:28Z</time></trkpt><trkpt lat="43.10407241830465" lon="0.3446548480777286"><ele>584.0</ele><time>2026-04-01T13:14:29Z</time></trkpt><trkpt lat="43.104080062754164" lon="0.34475910093605233"><ele>584.5</ele><time>2026-04-01T13:14:30Z</time></trkpt><trkpt lat="43.104110602484326" lon="0.3448668370007072"><ele>585.0</ele><time>2026-04-01T13:14:31Z</time></trkpt><trkpt lat="43.10416747829537" lon="0.3449523816718836"><ele>585.5</ele><time>2026-04-01T13:14:32Z</time></trkpt><trkpt lat="43.10424339640964" lon="0.34500875031049993"><ele>586.0</ele><time>2026-04-01T13:14:33Z</time></trkpt><trkpt lat="43.1043354590831" lon="0.3450503291223697"><ele>586.0</ele><time>2026-04-01T13:14:34Z</time></trkpt><trkpt lat="43.104429177621576" lon="0.345117609106543"><ele>586.0</ele><time>2026-04-01T13:14:35Z</time></trkpt><trkpt lat="43.104514758367564" lon="0.3452158124760617"><ele>586.0</ele><time>2026-04-01T13:14:36Z</time></trkpt><trkpt lat="43.10458812223891" lon="0.3453455249678761"><ele>586.0</ele><time>2026-04-01T13:14:37Z</time></trkpt><trkpt lat="43.10465769791395" lon="0.34549840385323"><ele>586.6666666666667</ele><time>2026-04-01T13:14:38Z</time></trkpt><trkpt lat="43.10474063914389" lon="0.3456705419596753"><ele>587.3333333333334</ele><time>2026-04-01T13:14:39Z</time></trkpt><trkpt lat="43.104843078553024" lon="0.3458541637694228"><ele>588.0</ele><time>2026-04-01T13:14:40Z</time></trkpt><trkpt lat="43.104943561532544" lon="0.34601302404259104"><ele>588.0</ele><time>2026-04-01T13:14:41Z</time></trkpt><trkpt lat="43.105044708694706" lon="0.34616727648414014"><ele>588.0</ele><time>2026-04-01T13:14:42Z</time></trkpt><trkpt lat="43.10514894367351" lon="0.34631971855705374"><ele>588.0</ele><time>2026-04-01T13:14:43Z</time></trkpt><trkpt lat="43.10525820922008" lon="0.3464711163413193"><ele>588.0</ele><time>2026-04-01T13:14:44Z</time></trkpt><trkpt lat="43.10536556723535" lon="0.3466227965441268"><ele>588.0</ele><time>2026-04-01T13:14:45Z</time></trkpt><trkpt lat="43.105471066722174" lon="0.34677700757065266"><ele>588.0</ele><time>2026-04-01T13:14:46Z</time></trkpt><trkpt lat="43.1055769745129" lon="0.346928156481609"><ele>588.0</ele><time>2026-04-01T13:14:47Z</time></trkpt><trkpt lat="43.105683817741955" lon="0.34708345715423133"><ele>588.0</ele><time>2026-04-01T13:14:48Z</time></trkpt><trkpt lat="43.105787751740834" lon="0.34724382963173495"><ele>588.0</ele><time>2026-04-01T13:14:49Z</time></trkpt><trkpt lat="43.1058894871025" lon="0.34740789646176534"><ele>588.3333333333334</ele><time>2026-04-01T13:14:50Z</time></trkpt><trkpt lat="43.10599128284804" lon="0.34757799883293755"><ele>588.6666666666667</ele><time>2026-04-01T13:14:51Z</time></trkpt><trkpt lat="43.10609563837515" lon="0.3477524667606603"><ele>589.0</ele><time>2026-04-01T13:14:52Z</time></trkpt><trkpt lat="43.10619971623121" lon="0.34793241166382616"><ele>590.0</ele><time>2026-04-01T13:14:53Z</time></trkpt><trkpt lat="43.106301270168515" lon="0.3481206735473039"><ele>591.0</ele><time>2026-04-01T13:14:54Z</time></trkpt><trkpt lat="43.10639838275632" lon="0.34831208940430314"><ele>592.0</ele><time>2026-04-01T13:14:55Z</time></trkpt><trkpt lat="43.10649367280507" lon="0.3485046784181258"><ele>591.6666666666667</ele><time>2026-04-01T13:14:56Z</time></trkpt><trkpt lat="43.10658611724973" lon="0.3486973363849589"><ele>591.3333333333334</ele><time>2026-04-01T13:14:57Z</time></trkpt><trkpt lat="43.10667548617218" lon="0.3488885689928985"><ele>591.0</ele><time>2026-04-01T13:14:58Z</time></trkpt><trkpt lat="43.10676300285805" lon="0.34908118521016784"><ele>591.0</ele><time>2026-04-01T13:14:59Z</time></trkpt><trkpt lat="43.10684895893015" lon="0.349273771521743"><ele>591.0</ele><time>2026-04-01T13:15:00Z</time></trkpt><trkpt lat="43.10693334695201" lon="0.3494688619958155"><ele>591.0</ele><time>2026-04-01T13:15:01Z</time></trkpt><trkpt lat="43.10701525909546" lon="0.3496693548037593"><ele>592.0</ele><time>2026-04-01T13:15:02Z</time></trkpt><trkpt lat="43.10709485359843" lon="0.349868856199518"><ele>593.0</ele><time>2026-04-01T13:15:03Z</time></trkpt><trkpt lat="43.10717597084141" lon="0.35007850901569804"><ele>594.0</ele><time>2026-04-01T13:15:04Z</time></trkpt><trkpt lat="43.10726270237343" lon="0.3502989534687101"><ele>594.0</ele><time>2026-04-01T13:15:05Z</time></trkpt><trkpt lat="43.10734381111276" lon="0.3505229416223386"><ele>594.0</ele><time>2026-04-01T13:15:06Z</time></trkpt><trkpt lat="43.1074246483837" lon="0.3507484656757218"><ele>594.0</ele><time>2026-04-01T13:15:07Z</time></trkpt><trkpt lat="43.107505813366956" lon="0.35097376329656294"><ele>594.0</ele><time>2026-04-01T13:15:08Z</time></trkpt><trkpt lat="43.10760102903726" lon="0.35119326870962575"><ele>594.0</ele><time>2026-04-01T13:15:09Z</time></trkpt><trkpt lat="43.10771923598828" lon="0.3513868872864519"><ele>594.0</ele><time>2026-04-01T13:15:10Z</time></trkpt><trkpt lat="43.10785363099588" lon="0.3515578027632935"><ele>594.0</ele><time>2026-04-01T13:15:11Z</time></trkpt><trkpt lat="43.10799911845581" lon="0.35169953719214514"><ele>594.0</ele><time>2026-04-01T13:15:12Z</time></trkpt><trkpt lat="43.108157504038296" lon="0.35181581233543924"><ele>594.0</ele><time>2026-04-01T13:15:13Z</time></trkpt><trkpt lat="43.10832241541083" lon="0.3519103050722373"><ele>594.0</ele><time>2026-04-01T13:15:14Z</time></trkpt><trkpt lat="43.10849210661706" lon="0.3519785381683172"><ele>594.0</ele><time>2026-04-01T13:15:15Z</time></trkpt><trkpt lat="43.108665866288455" lon="0.35201589526950117"><ele>594.0</ele><time>2026-04-01T13:15:16Z</time></trkpt><trkpt lat="43.10884081015453" lon="0.3520263389379537"><ele>594.0</ele><time>2026-04-01T13:15:17Z</time></trkpt><trkpt lat="43.109015648557424" lon="0.35202437260394864"><ele>594.0</ele><time>2026-04-01T13:15:18Z</time></trkpt><trkpt lat="43.10919046301936" lon="0.35202307912370184"><ele>594.0</ele><time>2026-04-01T13:15:19Z</time></trkpt><trkpt lat="43.10936356139604" lon="0.352022360333615"><ele>596.3333333333334</ele><time>2026-04-01T13:15:20Z</time></trkpt><trkpt lat="43.10953704033786" lon="0.35202137449286014"><ele>598.6666666666667</ele><time>2026-04-01T13:15:21Z</time></trkpt><trkpt lat="43.10970990908219" lon="0.35202355671381136"><ele>601.0</ele><time>2026-04-01T13:15:22Z</time></trkpt><trkpt lat="43.10988202493383" lon="0.35202631302233567"><ele>601.6666666666667</ele><time>2026-04-01T13:15:23Z</time></trkpt><trkpt lat="43.11005363507703" lon="0.352037130645141"><ele>602.3333333333334</ele><time>2026-04-01T13:15:24Z</time></trkpt><trkpt lat="43.11022449928056" lon="0.35205864078602117"><ele>603.0</ele><time>2026-04-01T13:15:25Z</time></trkpt><trkpt lat="43.110394446267904" lon="0.35208340890882184"><ele>603.0</ele><time>2026-04-01T13:15:26Z</time></trkpt><trkpt lat="43.110564586256565" lon="0.35211154711856935"><ele>603.0</ele><time>2026-04-01T13:15:27Z</time></trkpt><trkpt lat="43.110733843052415" lon="0.3521490681277926"><ele>603.0</ele><time>2026-04-01T13:15:28Z</time></trkpt><trkpt lat="43.110900559245735" lon="0.3521969283614741"><ele>602.3333333333334</ele><time>2026-04-01T13:15:29Z</time></trkpt><trkpt lat="43.111064320801205" lon="0.35225406690919436"><ele>601.6666666666667</ele><time>2026-04-01T13:15:30Z</time></trkpt><trkpt lat="43.11122450180234" lon="0.35232022554970294"><ele>601.0</ele><time>2026-04-01T13:15:31Z</time></trkpt><trkpt lat="43.11137662359302" lon="0.3524022514964741"><ele>601.0</ele><time>2026-04-01T13:15:32Z</time></trkpt><trkpt lat="43.11152095712167" lon="0.3525023401760881"><ele>601.0</ele><time>2026-04-01T13:15:33Z</time></trkpt><trkpt lat="43.1116556041735" lon="0.35261549043042517"><ele>601.0</ele><time>2026-04-01T13:15:34Z</time></trkpt><trkpt lat="43.11177731740017" lon="0.3527375734533751"><ele>601.75</ele><time>2026-04-01T13:15:35Z</time></trkpt><trkpt lat="43.11188901532629" lon="0.35286910930967663"><ele>602.5</ele><time>2026-04-01T13:15:36Z</time></trkpt><trkpt lat="43.111988809062545" lon="0.3530180567933975"><ele>603.25</ele><time>2026-04-01T13:15:37Z</time></trkpt><trkpt lat="43.11207667721531" lon="0.3531771390997465"><ele>604.0</ele><time>2026-04-01T13:15:38Z</time></trkpt><trkpt lat="43.11214376588561" lon="0.3533447120731332"><ele>605.0</ele><time>2026-04-01T13:15:39Z</time></trkpt><trkpt lat="43.11219765856255" lon="0.3535170089101322"><ele>606.0</ele><time>2026-04-01T13:15:40Z</time></trkpt><trkpt lat="43.11224494832078" lon="0.3536845290117833"><ele>607.0</ele><time>2026-04-01T13:15:41Z</time></trkpt><trkpt lat="43.112284577410044" lon="0.3538433293811158"><ele>608.0</ele><time>2026-04-01T13:15:42Z</time></trkpt><trkpt lat="43.11231383306401" lon="0.3539913871869998"><ele>608.4</ele><time>2026-04-01T13:15:43Z</time></trkpt><trkpt lat="43.11233089106203" lon="0.35413664891018476"><ele>608.8</ele><time>2026-04-01T13:15:44Z</time></trkpt><trkpt lat="43.1123485583777" lon="0.35428509314586526"><ele>609.2</ele><time>2026-04-01T13:15:45Z</time></trkpt><trkpt lat="43.112361698209845" lon="0.35443846583215166"><ele>609.6</ele><time>2026-04-01T13:15:46Z</time></trkpt><trkpt lat="43.11237466600144" lon="0.3545854962738275"><ele>610.0</ele><time>2026-04-01T13:15:47Z</time></trkpt><trkpt lat="43.11238597008879" lon="0.3547252445413633"><ele>610.1666666666667</ele><time>2026-04-01T13:15:48Z</time></trkpt><trkpt lat="43.11239504959374" lon="0.35485412937129057"><ele>610.3333333333334</ele><time>2026-04-01T13:15:49Z</time></trkpt><trkpt lat="43.11240375728362" lon="0.35497836017948853"><ele>610.5</ele><time>2026-04-01T13:15:50Z</time></trkpt><trkpt lat="43.112415506572134" lon="0.35509892618585326"><ele>610.6666666666666</ele><time>2026-04-01T13:15:51Z</time></trkpt><trkpt lat="43.11242468432286" lon="0.35521795187922134"><ele>610.8333333333333</ele><time>2026-04-01T13:15:52Z</time></trkpt><trkpt lat="43.112428683710455" lon="0.3553121657018975"><ele>611.0</ele><time>2026-04-01T13:15:53Z</time></trkpt><trkpt lat="43.112433576096514" lon="0.355433853836067"><ele>611.1666666666666</ele><time>2026-04-01T13:15:55Z</time></trkpt><trkpt lat="43.11243356356879" lon="0.35556997713035876"><ele>611.3333333333333</ele><time>2026-04-01T13:15:58Z</time></trkpt><trkpt lat="43.11243107156344" lon="0.35567044661154"><ele>611.5</ele><time>2026-04-01T13:16:01Z</time></trkpt><trkpt lat="43.11239946577533" lon="0.3557491301746293"><ele>611.6666666666666</ele><time>2026-04-01T13:16:03Z</time></trkpt><trkpt lat="43.112387593105865" lon="0.3558348489910373"><ele>611.8333333333334</ele><time>2026-04-01T13:16:04Z</time></trkpt><trkpt lat="43.11242463197936" lon="0.3560041979462792"><ele>612.0</ele><time>2026-04-01T13:16:06Z</time></trkpt><trkpt lat="43.11247161636847" lon="0.35611474476603605"><ele>612.4</ele><time>2026-04-01T13:16:07Z</time></trkpt><trkpt lat="43.11249778589021" lon="0.35624112445499934"><ele>612.8000000000001</ele><time>2026-04-01T13:16:08Z</time></trkpt><trkpt lat="43.11251378212329" lon="0.3563733360152705"><ele>613.2</ele><time>2026-04-01T13:16:09Z</time></trkpt><trkpt lat="43.11253009901837" lon="0.356508001505634"><ele>613.6</ele><time>2026-04-01T13:16:10Z</time></trkpt><trkpt lat="43.11254965360646" lon="0.35664530353093155"><ele>614.0</ele><time>2026-04-01T13:16:11Z</time></trkpt><trkpt lat="43.112552424282306" lon="0.3568136925051714"><ele>614.3333333333333</ele><time>2026-04-01T13:16:12Z</time></trkpt><trkpt lat="43.112568503840556" lon="0.3569815457540561"><ele>614.6666666666666</ele><time>2026-04-01T13:16:13Z</time></trkpt><trkpt lat="43.11258734353975" lon="0.35719036417544503"><ele>615.0</ele><time>2026-04-01T13:16:14Z</time></trkpt><trkpt lat="43.11261299470859" lon="0.357429510229664"><ele>615.0</ele><time>2026-04-01T13:16:15Z</time></trkpt><trkpt lat="43.11263767554251" lon="0.3576893584719902"><ele>615.0</ele><time>2026-04-01T13:16:16Z</time></trkpt><trkpt lat="43.11265600664577" lon="0.3579661034508327"><ele>615.0</ele><time>2026-04-01T13:16:17Z</time></trkpt><trkpt lat="43.11267574416861" lon="0.35825251373948297"><ele>615.6666666666666</ele><time>2026-04-01T13:16:18Z</time></trkpt><trkpt lat="43.11269802139382" lon="0.35854386155801127"><ele>616.3333333333333</ele><time>2026-04-01T13:16:19Z</time></trkpt><trkpt lat="43.112732355954826" lon="0.35881530775946224"><ele>617.0</ele><time>2026-04-01T13:16:20Z</time></trkpt><trkpt lat="43.112782375550914" lon="0.3590831889614128"><ele>617.3333333333333</ele><time>2026-04-01T13:16:21Z</time></trkpt><trkpt lat="43.11285255338324" lon="0.35934016288344667"><ele>617.6666666666666</ele><time>2026-04-01T13:16:22Z</time></trkpt><trkpt lat="43.11294274019682" lon="0.3595863545392555"><ele>618.0</ele><time>2026-04-01T13:16:23Z</time></trkpt><trkpt lat="43.11303724167087" lon="0.3598280037666383"><ele>618.3333333333334</ele><time>2026-04-01T13:16:24Z</time></trkpt><trkpt lat="43.11313278298438" lon="0.3600728817590133"><ele>618.6666666666667</ele><time>2026-04-01T13:16:25Z</time></trkpt><trkpt lat="43.113227879015064" lon="0.3603213707281326"><ele>619.0</ele><time>2026-04-01T13:16:26Z</time></trkpt><trkpt lat="43.113323464616805" lon="0.36057411407475065"><ele>619.0</ele><time>2026-04-01T13:16:27Z</time></trkpt><trkpt lat="43.113419517790724" lon="0.36082708137295927"><ele>619.0</ele><time>2026-04-01T13:16:28Z</time></trkpt><trkpt lat="43.113517193724846" lon="0.3610788507799962"><ele>619.0</ele><time>2026-04-01T13:16:29Z</time></trkpt><trkpt lat="43.11361421135036" lon="0.36132837780730903"><ele>619.3333333333334</ele><time>2026-04-01T13:16:30Z</time></trkpt><trkpt lat="43.11371211240985" lon="0.36157778478014596"><ele>619.6666666666666</ele><time>2026-04-01T13:16:31Z</time></trkpt><trkpt lat="43.1138097804493" lon="0.3618287665936493"><ele>620.0</ele><time>2026-04-01T13:16:32Z</time></trkpt><trkpt lat="43.113906658159415" lon="0.3620786205914686"><ele>619.3333333333333</ele><time>2026-04-01T13:16:33Z</time></trkpt><trkpt lat="43.11400323450686" lon="0.3623309111297941"><ele>618.6666666666666</ele><time>2026-04-01T13:16:34Z</time></trkpt><trkpt lat="43.11410003681968" lon="0.36258120796593085"><ele>618.0</ele><time>2026-04-01T13:16:35Z</time></trkpt><trkpt lat="43.114198290463875" lon="0.362832165782228"><ele>617.6666666666666</ele><time>2026-04-01T13:16:36Z</time></trkpt><trkpt lat="43.11429495110103" lon="0.363079976681663"><ele>617.3333333333333</ele><time>2026-04-01T13:16:37Z</time></trkpt><trkpt lat="43.11438968455741" lon="0.3633274731378069"><ele>617.0</ele><time>2026-04-01T13:16:38Z</time></trkpt><trkpt lat="43.1144836731914" lon="0.3635706482700267"><ele>617.0</ele><time>2026-04-01T13:16:39Z</time></trkpt><trkpt lat="43.11457773085415" lon="0.36380788455695484"><ele>617.0</ele><time>2026-04-01T13:16:40Z</time></trkpt><trkpt lat="43.11466959109859" lon="0.3640429208820766"><ele>617.0</ele><time>2026-04-01T13:16:41Z</time></trkpt><trkpt lat="43.114759898756326" lon="0.36427526533226734"><ele>617.0</ele><time>2026-04-01T13:16:42Z</time></trkpt><trkpt lat="43.114851380826266" lon="0.36450931204312215"><ele>617.0</ele><time>2026-04-01T13:16:43Z</time></trkpt><trkpt lat="43.11494093191202" lon="0.3647422876491566"><ele>617.0</ele><time>2026-04-01T13:16:44Z</time></trkpt><trkpt lat="43.1150291697723" lon="0.3649727371667669"><ele>616.6666666666666</ele><time>2026-04-01T13:16:45Z</time></trkpt><trkpt lat="43.11511711910983" lon="0.36520189801205033"><ele>616.3333333333334</ele><time>2026-04-01T13:16:46Z</time></trkpt><trkpt lat="43.11520667414893" lon="0.3654239964249787"><ele>616.0</ele><time>2026-04-01T13:16:47Z</time></trkpt><trkpt lat="43.11529694198575" lon="0.36565386618828516"><ele>615.0</ele><time>2026-04-01T13:16:48Z</time></trkpt><trkpt lat="43.11538733024764" lon="0.3658835226822795"><ele>614.0</ele><time>2026-04-01T13:16:49Z</time></trkpt><trkpt lat="43.11548294642234" lon="0.3661259142845168"><ele>613.0</ele><time>2026-04-01T13:16:50Z</time></trkpt><trkpt lat="43.11557718299274" lon="0.3663682368559843"><ele>613.0</ele><time>2026-04-01T13:16:51Z</time></trkpt><trkpt lat="43.11567128224059" lon="0.3666140347917387"><ele>613.0</ele><time>2026-04-01T13:16:52Z</time></trkpt><trkpt lat="43.115764794479404" lon="0.3668568651308713"><ele>613.0</ele><time>2026-04-01T13:16:53Z</time></trkpt><trkpt lat="43.11585606190687" lon="0.3670970143453232"><ele>612.0</ele><time>2026-04-01T13:16:54Z</time></trkpt><trkpt lat="43.115942910133626" lon="0.36732359874667636"><ele>611.0</ele><time>2026-04-01T13:16:55Z</time></trkpt><trkpt lat="43.11602770684266" lon="0.3675453327351813"><ele>610.0</ele><time>2026-04-01T13:16:56Z</time></trkpt><trkpt lat="43.116113252518595" lon="0.3677646985280177"><ele>610.0</ele><time>2026-04-01T13:16:57Z</time></trkpt><trkpt lat="43.116198259496656" lon="0.3679847206717651"><ele>610.0</ele><time>2026-04-01T13:16:58Z</time></trkpt><trkpt lat="43.11628393201218" lon="0.3682105812676096"><ele>610.0</ele><time>2026-04-01T13:16:59Z</time></trkpt><trkpt lat="43.116370151809654" lon="0.36843697075682813"><ele>609.3333333333334</ele><time>2026-04-01T13:17:00Z</time></trkpt><trkpt lat="43.116456343971464" lon="0.36865999482830164"><ele>608.6666666666666</ele><time>2026-04-01T13:17:01Z</time></trkpt><trkpt lat="43.11654124047355" lon="0.36888097655779317"><ele>608.0</ele><time>2026-04-01T13:17:02Z</time></trkpt><trkpt lat="43.11662505056354" lon="0.36910033041910156"><ele>606.0</ele><time>2026-04-01T13:17:03Z</time></trkpt><trkpt lat="43.1167088609141" lon="0.36932101830879915"><ele>604.0</ele><time>2026-04-01T13:17:04Z</time></trkpt><trkpt lat="43.11679393072288" lon="0.3695389632772177"><ele>602.0</ele><time>2026-04-01T13:17:05Z</time></trkpt><trkpt lat="43.1168760927298" lon="0.3697583908515358"><ele>601.3333333333333</ele><time>2026-04-01T13:17:06Z</time></trkpt><trkpt lat="43.116954240209466" lon="0.36997636688513486"><ele>600.6666666666666</ele><time>2026-04-01T13:17:07Z</time></trkpt><trkpt lat="43.11703323764747" lon="0.37019784921152654"><ele>600.0</ele><time>2026-04-01T13:17:08Z</time></trkpt><trkpt lat="43.11711608038695" lon="0.37042209335812365"><ele>600.3333333333334</ele><time>2026-04-01T13:17:09Z</time></trkpt><trkpt lat="43.11720533783462" lon="0.37064499164721626"><ele>600.6666666666667</ele><time>2026-04-01T13:17:10Z</time></trkpt><trkpt lat="43.117293335334544" lon="0.3708684378185141"><ele>601.0</ele><time>2026-04-01T13:17:11Z</time></trkpt><trkpt lat="43.11738049932059" lon="0.3710911193336282"><ele>600.0</ele><time>2026-04-01T13:17:12Z</time></trkpt><trkpt lat="43.11746553460923" lon="0.37130948081605464"><ele>599.0</ele><time>2026-04-01T13:17:13Z</time></trkpt><trkpt lat="43.11754931350607" lon="0.37152876406175156"><ele>598.0</ele><time>2026-04-01T13:17:14Z</time></trkpt><trkpt lat="43.11762938624568" lon="0.37174688602935313"><ele>597.6666666666667</ele><time>2026-04-01T13:17:15Z</time></trkpt><trkpt lat="43.11771079613204" lon="0.3719620832230562"><ele>597.3333333333334</ele><time>2026-04-01T13:17:16Z</time></trkpt><trkpt lat="43.11779687374029" lon="0.37218273574750277"><ele>597.0</ele><time>2026-04-01T13:17:17Z</time></trkpt><trkpt lat="43.11788406242657" lon="0.3724054997401545"><ele>596.3333333333334</ele><time>2026-04-01T13:17:18Z</time></trkpt><trkpt lat="43.11797049154146" lon="0.3726278058750049"><ele>595.6666666666667</ele><time>2026-04-01T13:17:19Z</time></trkpt><trkpt lat="43.11805998027873" lon="0.37285358365217447"><ele>595.0</ele><time>2026-04-01T13:17:20Z</time></trkpt><trkpt lat="43.11815066992995" lon="0.37307404916708253"><ele>593.3333333333334</ele><time>2026-04-01T13:17:21Z</time></trkpt><trkpt lat="43.11824236436068" lon="0.37329631753380355"><ele>591.6666666666666</ele><time>2026-04-01T13:17:22Z</time></trkpt><trkpt lat="43.11833334925781" lon="0.3735186730796986"><ele>590.0</ele><time>2026-04-01T13:17:23Z</time></trkpt><trkpt lat="43.1184237820336" lon="0.3737397237495869"><ele>590.3333333333333</ele><time>2026-04-01T13:17:24Z</time></trkpt><trkpt lat="43.11851192511071" lon="0.37395460918335915"><ele>590.6666666666666</ele><time>2026-04-01T13:17:25Z</time></trkpt><trkpt lat="43.11859524174698" lon="0.37416259933245094"><ele>591.0</ele><time>2026-04-01T13:17:26Z</time></trkpt><trkpt lat="43.118672146557685" lon="0.37436236560692815"><ele>591.0</ele><time>2026-04-01T13:17:27Z</time></trkpt><trkpt lat="43.11874992792944" lon="0.3745505540440526"><ele>591.0</ele><time>2026-04-01T13:17:28Z</time></trkpt><trkpt lat="43.11882863810638" lon="0.37473820632244653"><ele>591.0</ele><time>2026-04-01T13:17:29Z</time></trkpt><trkpt lat="43.11890311797594" lon="0.3749240610234314"><ele>591.4</ele><time>2026-04-01T13:17:30Z</time></trkpt><trkpt lat="43.11896817374841" lon="0.3750756721923886"><ele>591.8</ele><time>2026-04-01T13:17:31Z</time></trkpt><trkpt lat="43.11902590583893" lon="0.37521506036033575"><ele>592.1999999999999</ele><time>2026-04-01T13:17:32Z</time></trkpt><trkpt lat="43.11907859651314" lon="0.37533102212281916"><ele>592.6</ele><time>2026-04-01T13:17:33Z</time></trkpt><trkpt lat="43.11912611142001" lon="0.37543681503864945"><ele>593.0</ele><time>2026-04-01T13:17:34Z</time></trkpt><trkpt lat="43.11916873552299" lon="0.37553305570743806"><ele>593.8333333333333</ele><time>2026-04-01T13:17:35Z</time></trkpt><trkpt lat="43.119207683403474" lon="0.37562392688931107"><ele>594.6666666666666</ele><time>2026-04-01T13:17:36Z</time></trkpt><trkpt lat="43.119248526995925" lon="0.37571609096579855"><ele>595.5</ele><time>2026-04-01T13:17:37Z</time></trkpt><trkpt lat="43.119290721665635" lon="0.37580787824186496"><ele>596.3333333333334</ele><time>2026-04-01T13:17:38Z</time></trkpt><trkpt lat="43.119332126000906" lon="0.375893446346118"><ele>597.1666666666667</ele><time>2026-04-01T13:17:39Z</time></trkpt><trkpt lat="43.11939843685581" lon="0.37602117912007393"><ele>598.0</ele><time>2026-04-01T13:17:41Z</time></trkpt><trkpt lat="43.11944627698024" lon="0.37611122150432025"><ele>598.0</ele><time>2026-04-01T13:17:43Z</time></trkpt><trkpt lat="43.11949980989184" lon="0.3761965368238743"><ele>598.0</ele><time>2026-04-01T13:17:47Z</time></trkpt><trkpt lat="43.119559879274924" lon="0.3763262810164417"><ele>598.0</ele><time>2026-04-01T13:17:49Z</time></trkpt><trkpt lat="43.11958671548874" lon="0.37648241506605684"><ele>598.0</ele><time>2026-04-01T13:17:51Z</time></trkpt><trkpt lat="43.119618418353994" lon="0.3766374831214108"><ele>598.0</ele><time>2026-04-01T13:17:53Z</time></trkpt><trkpt lat="43.11965846555476" lon="0.3767430395685831"><ele>598.0</ele><time>2026-04-01T13:17:54Z</time></trkpt><trkpt lat="43.1197243023084" lon="0.3768044958118003"><ele>598.0</ele><time>2026-04-01T13:17:55Z</time></trkpt><trkpt lat="43.11972598075935" lon="0.37701920693207447"><ele>598.0</ele><time>2026-04-01T13:17:56Z</time></trkpt><trkpt lat="43.119737359200386" lon="0.3771889891076894"><ele>598.0</ele><time>2026-04-01T13:17:57Z</time></trkpt><trkpt lat="43.11974856577798" lon="0.37735144099255985"><ele>598.5</ele><time>2026-04-01T13:17:58Z</time></trkpt><trkpt lat="43.119753302543174" lon="0.3775240723558225"><ele>599.0</ele><time>2026-04-01T13:17:59Z</time></trkpt><trkpt lat="43.11975399480129" lon="0.3777025847441913"><ele>599.5</ele><time>2026-04-01T13:18:00Z</time></trkpt><trkpt lat="43.11975711225915" lon="0.37787684613782035"><ele>600.0</ele><time>2026-04-01T13:18:01Z</time></trkpt><trkpt lat="43.11979042595878" lon="0.378042406591336"><ele>600.5</ele><time>2026-04-01T13:18:02Z</time></trkpt><trkpt lat="43.11987242203509" lon="0.37813799400626513"><ele>601.0</ele><time>2026-04-01T13:18:03Z</time></trkpt><trkpt lat="43.11990522320886" lon="0.3782901242155785"><ele>601.5</ele><time>2026-04-01T13:18:04Z</time></trkpt><trkpt lat="43.1199433655099" lon="0.37844857898856354"><ele>602.0</ele><time>2026-04-01T13:18:05Z</time></trkpt><trkpt lat="43.119979457500456" lon="0.3785909127918193"><ele>602.0</ele><time>2026-04-01T13:18:06Z</time></trkpt><trkpt lat="43.12002416278531" lon="0.3787448248593326"><ele>602.0</ele><time>2026-04-01T13:18:07Z</time></trkpt><trkpt lat="43.120077164822696" lon="0.3789048356999356"><ele>602.0</ele><time>2026-04-01T13:18:08Z</time></trkpt><trkpt lat="43.12013997302593" lon="0.3790677740088251"><ele>602.0</ele><time>2026-04-01T13:18:09Z</time></trkpt><trkpt lat="43.12020808278511" lon="0.37924065962878023"><ele>602.0</ele><time>2026-04-01T13:18:10Z</time></trkpt><trkpt lat="43.12027733634927" lon="0.3794205163878372"><ele>602.0</ele><time>2026-04-01T13:18:11Z</time></trkpt><trkpt lat="43.120345147468626" lon="0.37959325338180955"><ele>602.0</ele><time>2026-04-01T13:18:12Z</time></trkpt><trkpt lat="43.12041146589209" lon="0.37976882258098493"><ele>602.0</ele><time>2026-04-01T13:18:13Z</time></trkpt><trkpt lat="43.120479316243916" lon="0.37994942565114614"><ele>602.0</ele><time>2026-04-01T13:18:14Z</time></trkpt><trkpt lat="43.12054358990039" lon="0.3801295176644753"><ele>602.0</ele><time>2026-04-01T13:18:15Z</time></trkpt><trkpt lat="43.12060077582667" lon="0.3802962405376304"><ele>602.0</ele><time>2026-04-01T13:18:16Z</time></trkpt><trkpt lat="43.12064897399096" lon="0.38043486696374573"><ele>602.0</ele><time>2026-04-01T13:18:17Z</time></trkpt><trkpt lat="43.12068582821895" lon="0.38054107996542286"><ele>601.6</ele><time>2026-04-01T13:18:18Z</time></trkpt><trkpt lat="43.12071344027985" lon="0.3806215710091509"><ele>601.2</ele><time>2026-04-01T13:18:19Z</time></trkpt><trkpt lat="43.120714941813866" lon="0.3807637228377992"><ele>600.8</ele><time>2026-04-01T13:18:21Z</time></trkpt><trkpt lat="43.12056925902019" lon="0.38082348542694416"><ele>600.4</ele><time>2026-04-01T13:18:23Z</time></trkpt><trkpt lat="43.120458431189824" lon="0.3808600392671115"><ele>600.0</ele><time>2026-04-01T13:18:25Z</time></trkpt><trkpt lat="43.120348754534966" lon="0.38089704377798006"><ele>600.0</ele><time>2026-04-01T13:18:27Z</time></trkpt><trkpt lat="43.12028758911173" lon="0.3809186035121456"><ele>600.0</ele><time>2026-04-01T13:18:28Z</time></trkpt><trkpt lat="43.12022094557984" lon="0.38095270155984856"><ele>600.0</ele><time>2026-04-01T13:18:29Z</time></trkpt><trkpt lat="43.12014433023035" lon="0.38097434169099864"><ele>600.0</ele><time>2026-04-01T13:18:30Z</time></trkpt><trkpt lat="43.12006125512277" lon="0.38099876299492164"><ele>600.0</ele><time>2026-04-01T13:18:31Z</time></trkpt><trkpt lat="43.1199693666431" lon="0.3810305796882775"><ele>600.0</ele><time>2026-04-01T13:18:32Z</time></trkpt><trkpt lat="43.1198738532898" lon="0.38106347546306324"><ele>600.2</ele><time>2026-04-01T13:18:33Z</time></trkpt><trkpt lat="43.119779869143315" lon="0.38109775279658287"><ele>600.4</ele><time>2026-04-01T13:18:34Z</time></trkpt><trkpt lat="43.1196892670832" lon="0.3811364632148589"><ele>600.6</ele><time>2026-04-01T13:18:35Z</time></trkpt><trkpt lat="43.11960110916268" lon="0.3811913479035136"><ele>600.8</ele><time>2026-04-01T13:18:36Z</time></trkpt><trkpt lat="43.11952009810097" lon="0.38125563743758784"><ele>601.0</ele><time>2026-04-01T13:18:37Z</time></trkpt><trkpt lat="43.11944834380175" lon="0.38132855899792406"><ele>600.8333333333334</ele><time>2026-04-01T13:18:38Z</time></trkpt><trkpt lat="43.119386645019" lon="0.38140492349500427"><ele>600.6666666666667</ele><time>2026-04-01T13:18:39Z</time></trkpt><trkpt lat="43.11933075339819" lon="0.381490066382484"><ele>600.5</ele><time>2026-04-01T13:18:40Z</time></trkpt><trkpt lat="43.11929044594663" lon="0.38156387602490854"><ele>600.3333333333334</ele><time>2026-04-01T13:18:41Z</time></trkpt><trkpt lat="43.11924754647143" lon="0.38166546452680616"><ele>600.1666666666666</ele><time>2026-04-01T13:18:43Z</time></trkpt><trkpt lat="43.119228886045114" lon="0.38175221902403256"><ele>600.0</ele><time>2026-04-01T13:18:46Z</time></trkpt><trkpt lat="43.119200030208866" lon="0.3818302727425163"><ele>600.0</ele><time>2026-04-01T13:18:50Z</time></trkpt><trkpt lat="43.119128841745926" lon="0.3818887452069597"><ele>600.0</ele><time>2026-04-01T13:18:58Z</time></trkpt><trkpt lat="43.119086356360384" lon="0.38207005660644283"><ele>600.0</ele><time>2026-04-01T13:19:00Z</time></trkpt><trkpt lat="43.119067905470864" lon="0.3821846581415643"><ele>600.0</ele><time>2026-04-01T13:19:02Z</time></trkpt><trkpt lat="43.11900640762688" lon="0.382156479811976"><ele>600.0</ele><time>2026-04-01T13:19:35Z</time></trkpt><trkpt lat="43.118932719314095" lon="0.3821061763444048"><ele>600.0</ele><time>2026-04-01T13:19:47Z</time></trkpt><trkpt lat="43.11901365020177" lon="0.38216460484200154"><ele>600.0</ele><time>2026-04-01T13:19:58Z</time></trkpt><trkpt lat="43.11907876912206" lon="0.3821817890477832"><ele>600.0</ele><time>2026-04-01T13:20:04Z</time></trkpt><trkpt lat="43.11900299104801" lon="0.38220681900009934"><ele>600.0</ele><time>2026-04-01T13:20:32Z</time></trkpt><trkpt lat="43.11892492603556" lon="0.38216902301001077"><ele>600.0</ele><time>2026-04-01T13:20:35Z</time></trkpt><trkpt lat="43.11903251444411" lon="0.3821450853011719"><ele>600.0</ele><time>2026-04-01T13:20:51Z</time></trkpt><trkpt lat="43.11907117940556" lon="0.38222827682808164"><ele>599.6</ele><time>2026-04-01T13:20:52Z</time></trkpt><trkpt lat="43.11917064675402" lon="0.38231583838109834"><ele>599.2</ele><time>2026-04-01T13:20:53Z</time></trkpt><trkpt lat="43.119306730827425" lon="0.38238978848212685"><ele>598.8</ele><time>2026-04-01T13:20:54Z</time></trkpt><trkpt lat="43.119286646398955" lon="0.3822994051024093"><ele>598.4</ele><time>2026-04-01T13:20:57Z</time></trkpt><trkpt lat="43.119243171876384" lon="0.3822215537178533"><ele>598.0</ele><time>2026-04-01T13:21:08Z</time></trkpt><trkpt lat="43.11917258436443" lon="0.3822195779629374"><ele>598.0</ele><time>2026-04-01T13:21:13Z</time></trkpt><trkpt lat="43.11909937146925" lon="0.3822289911827272"><ele>598.0</ele><time>2026-04-01T13:21:18Z</time></trkpt><trkpt lat="43.11901720804457" lon="0.3821961762395478"><ele>598.0</ele><time>2026-04-01T13:21:20Z</time></trkpt><trkpt lat="43.11893367843748" lon="0.38212485842144356"><ele>598.0</ele><time>2026-04-01T13:21:27Z</time></trkpt><trkpt lat="43.11887616124276" lon="0.3820784137532407"><ele>598.0</ele><time>2026-04-01T13:21:37Z</time></trkpt><trkpt lat="43.11887503036901" lon="0.3821719846614699"><ele>598.0</ele><time>2026-04-01T13:21:43Z</time></trkpt><trkpt lat="43.11892032138934" lon="0.3822376347078641"><ele>598.4</ele><time>2026-04-01T13:21:49Z</time></trkpt><trkpt lat="43.11887554647718" lon="0.3821651671433957"><ele>598.8</ele><time>2026-04-01T13:22:35Z</time></trkpt><trkpt lat="43.118865725297454" lon="0.38204990146708767"><ele>599.2</ele><time>2026-04-01T13:23:08Z</time></trkpt><trkpt lat="43.118838763996635" lon="0.3821603924443792"><ele>599.6</ele><time>2026-04-01T13:24:39Z</time></trkpt><trkpt lat="43.11894812597524" lon="0.382151765774142"><ele>600.0</ele><time>2026-04-01T13:26:23Z</time></trkpt><trkpt lat="43.119010447826554" lon="0.38227792739586663"><ele>600.0</ele><time>2026-04-01T13:27:05Z</time></trkpt><trkpt lat="43.118998070340616" lon="0.3823864784012618"><ele>600.0</ele><time>2026-04-01T13:27:07Z</time></trkpt><trkpt lat="43.118974170712534" lon="0.38247174172319287"><ele>600.0</ele><time>2026-04-01T13:27:08Z</time></trkpt><trkpt lat="43.118929164759635" lon="0.38262692160183903"><ele>600.0</ele><time>2026-04-01T13:27:10Z</time></trkpt><trkpt lat="43.11888818927054" lon="0.3827775916532718"><ele>600.0</ele><time>2026-04-01T13:27:12Z</time></trkpt><trkpt lat="43.118842982165255" lon="0.3828913337027463"><ele>600.0</ele><time>2026-04-01T13:27:14Z</time></trkpt><trkpt lat="43.11878018530395" lon="0.3829670368621903"><ele>600.0</ele><time>2026-04-01T13:27:17Z</time></trkpt><trkpt lat="43.11864080767181" lon="0.3829799741989915"><ele>600.0</ele><time>2026-04-01T13:27:19Z</time></trkpt><trkpt lat="43.118550269212406" lon="0.38299016365505206"><ele>600.0</ele><time>2026-04-01T13:27:20Z</time></trkpt><trkpt lat="43.118465339799755" lon="0.3830010684609179"><ele>600.0</ele><time>2026-04-01T13:27:21Z</time></trkpt><trkpt lat="43.1184003739168" lon="0.38301918208500485"><ele>600.1666666666666</ele><time>2026-04-01T13:27:22Z</time></trkpt><trkpt lat="43.118306107084884" lon="0.38305360889167595"><ele>600.3333333333334</ele><time>2026-04-01T13:27:24Z</time></trkpt><trkpt lat="43.118234884169205" lon="0.383072437719616"><ele>600.5</ele><time>2026-04-01T13:27:27Z</time></trkpt><trkpt lat="43.1181667496286" lon="0.38309243069810023"><ele>600.6666666666667</ele><time>2026-04-01T13:27:30Z</time></trkpt><trkpt lat="43.11810290410568" lon="0.3831130169468849"><ele>600.8333333333334</ele><time>2026-04-01T13:27:32Z</time></trkpt><trkpt lat="43.117989914258814" lon="0.383148986872915"><ele>601.0</ele><time>2026-04-01T13:27:34Z</time></trkpt><trkpt lat="43.117924049120546" lon="0.38316280676771897"><ele>601.0</ele><time>2026-04-01T13:27:35Z</time></trkpt><trkpt lat="43.11784928242552" lon="0.38314142951403624"><ele>601.0</ele><time>2026-04-01T13:27:36Z</time></trkpt><trkpt lat="43.117768942739595" lon="0.383164777997689"><ele>601.0</ele><time>2026-04-01T13:27:37Z</time></trkpt><trkpt lat="43.11767718952517" lon="0.38319144343867845"><ele>601.0</ele><time>2026-04-01T13:27:38Z</time></trkpt><trkpt lat="43.1175816080381" lon="0.3832620263554205"><ele>601.0</ele><time>2026-04-01T13:27:39Z</time></trkpt><trkpt lat="43.11746665252173" lon="0.3833002760585744"><ele>601.4</ele><time>2026-04-01T13:27:40Z</time></trkpt><trkpt lat="43.11734852624562" lon="0.38333854301434084"><ele>601.8</ele><time>2026-04-01T13:27:41Z</time></trkpt><trkpt lat="43.117244605991374" lon="0.38336749841487366"><ele>602.1999999999999</ele><time>2026-04-01T13:27:42Z</time></trkpt><trkpt lat="43.117150595645114" lon="0.38339127692538955"><ele>602.6</ele><time>2026-04-01T13:27:43Z</time></trkpt><trkpt lat="43.11705397181584" lon="0.38337119565744415"><ele>603.0</ele><time>2026-04-01T13:27:44Z</time></trkpt><trkpt lat="43.116966522697396" lon="0.38339570611394763"><ele>603.0</ele><time>2026-04-01T13:27:45Z</time></trkpt><trkpt lat="43.11687206283554" lon="0.3834227708897121"><ele>603.0</ele><time>2026-04-01T13:27:46Z</time></trkpt><trkpt lat="43.116776515587986" lon="0.38345014718153786"><ele>603.0</ele><time>2026-04-01T13:27:47Z</time></trkpt><trkpt lat="43.11668149156359" lon="0.3834773735525058"><ele>603.0</ele><time>2026-04-01T13:27:48Z</time></trkpt><trkpt lat="43.11658417676508" lon="0.38350533977501794"><ele>603.0</ele><time>2026-04-01T13:27:49Z</time></trkpt><trkpt lat="43.11648421862656" lon="0.38353443150018796"><ele>603.0</ele><time>2026-04-01T13:27:50Z</time></trkpt><trkpt lat="43.11638192540307" lon="0.3835642028216031"><ele>603.0</ele><time>2026-04-01T13:27:51Z</time></trkpt><trkpt lat="43.11627421075695" lon="0.38359555200458945"><ele>603.0</ele><time>2026-04-01T13:27:52Z</time></trkpt><trkpt lat="43.116158465772315" lon="0.3836287324770589"><ele>603.0</ele><time>2026-04-01T13:27:53Z</time></trkpt><trkpt lat="43.11602993028908" lon="0.3836649039996397"><ele>603.0</ele><time>2026-04-01T13:27:54Z</time></trkpt><trkpt lat="43.11590156480694" lon="0.3837021538718884"><ele>603.0</ele><time>2026-04-01T13:27:55Z</time></trkpt><trkpt lat="43.115772968833944" lon="0.38373910506816816"><ele>603.0</ele><time>2026-04-01T13:27:56Z</time></trkpt><trkpt lat="43.11564558325688" lon="0.38377564459882935"><ele>603.0</ele><time>2026-04-01T13:27:57Z</time></trkpt><trkpt lat="43.11551911076877" lon="0.3838129605515595"><ele>604.5</ele><time>2026-04-01T13:27:58Z</time></trkpt><trkpt lat="43.115396112125" lon="0.3838479210633328"><ele>606.0</ele><time>2026-04-01T13:27:59Z</time></trkpt><trkpt lat="43.11527820670616" lon="0.38388173267362813"><ele>607.5</ele><time>2026-04-01T13:28:00Z</time></trkpt><trkpt lat="43.11516392613985" lon="0.3839145389206374"><ele>609.0</ele><time>2026-04-01T13:28:01Z</time></trkpt><trkpt lat="43.115059265538186" lon="0.3839449138090816"><ele>609.0</ele><time>2026-04-01T13:28:02Z</time></trkpt><trkpt lat="43.1149617367975" lon="0.3839724567099438"><ele>609.0</ele><time>2026-04-01T13:28:03Z</time></trkpt><trkpt lat="43.11485333675031" lon="0.384002755977327"><ele>609.0</ele><time>2026-04-01T13:28:04Z</time></trkpt><trkpt lat="43.114772827141216" lon="0.3840252595531417"><ele>609.0</ele><time>2026-04-01T13:28:05Z</time></trkpt><trkpt lat="43.11471111241884" lon="0.38404250968154446"><ele>609.0</ele><time>2026-04-01T13:28:06Z</time></trkpt><trkpt lat="43.11463364498011" lon="0.3840634436290523"><ele>609.0</ele><time>2026-04-01T13:28:08Z</time></trkpt><trkpt lat="43.11454194503992" lon="0.38408830700706204"><ele>609.6</ele><time>2026-04-01T13:28:14Z</time></trkpt><trkpt lat="43.1144770471359" lon="0.38410595751452214"><ele>610.2</ele><time>2026-04-01T13:28:17Z</time></trkpt><trkpt lat="43.11435469774497" lon="0.38415403070334103"><ele>610.8000000000001</ele><time>2026-04-01T13:28:31Z</time></trkpt><trkpt lat="43.11425424861801" lon="0.38418278687083773"><ele>611.4</ele><time>2026-04-01T13:28:32Z</time></trkpt><trkpt lat="43.114130077724354" lon="0.38419520788755973"><ele>612.0</ele><time>2026-04-01T13:28:33Z</time></trkpt><trkpt lat="43.11400060476303" lon="0.384251622108519"><ele>612.0</ele><time>2026-04-01T13:28:34Z</time></trkpt><trkpt lat="43.11384456618097" lon="0.38428567952741877"><ele>612.0</ele><time>2026-04-01T13:28:35Z</time></trkpt><trkpt lat="43.11367243397767" lon="0.38432783619927724"><ele>612.0</ele><time>2026-04-01T13:28:36Z</time></trkpt><trkpt lat="43.11348971639162" lon="0.3843744414991149"><ele>612.0</ele><time>2026-04-01T13:28:37Z</time></trkpt><trkpt lat="43.113304953824844" lon="0.3844295456008354"><ele>612.0</ele><time>2026-04-01T13:28:38Z</time></trkpt><trkpt lat="43.11311905210037" lon="0.3844864609103801"><ele>612.0</ele><time>2026-04-01T13:28:39Z</time></trkpt><trkpt lat="43.11293174965385" lon="0.3845391149313462"><ele>612.3333333333334</ele><time>2026-04-01T13:28:40Z</time></trkpt><trkpt lat="43.112762400464725" lon="0.38458596303099635"><ele>612.6666666666667</ele><time>2026-04-01T13:28:41Z</time></trkpt><trkpt lat="43.11261086058196" lon="0.3846332651087924"><ele>613.0</ele><time>2026-04-01T13:28:42Z</time></trkpt><trkpt lat="43.11247744867208" lon="0.3846817815098958"><ele>613.75</ele><time>2026-04-01T13:28:43Z</time></trkpt><trkpt lat="43.112342434940636" lon="0.3847005284781387"><ele>614.5</ele><time>2026-04-01T13:28:44Z</time></trkpt><trkpt lat="43.11221446815006" lon="0.38473721911061143"><ele>615.25</ele><time>2026-04-01T13:28:45Z</time></trkpt><trkpt lat="43.11206360922916" lon="0.3847804733232841"><ele>616.0</ele><time>2026-04-01T13:28:46Z</time></trkpt><trkpt lat="43.11189897456949" lon="0.384827677326154"><ele>616.0</ele><time>2026-04-01T13:28:47Z</time></trkpt><trkpt lat="43.111731318890904" lon="0.3848760334211039"><ele>616.0</ele><time>2026-04-01T13:28:48Z</time></trkpt><trkpt lat="43.11156182705427" lon="0.3849424816322008"><ele>616.0</ele><time>2026-04-01T13:28:49Z</time></trkpt><trkpt lat="43.11138700672045" lon="0.38498085242341684"><ele>616.6666666666667</ele><time>2026-04-01T13:28:50Z</time></trkpt><trkpt lat="43.11121085136159" lon="0.38502830524881215"><ele>617.3333333333334</ele><time>2026-04-01T13:28:51Z</time></trkpt><trkpt lat="43.11103626021074" lon="0.3850800330801853"><ele>618.0</ele><time>2026-04-01T13:28:52Z</time></trkpt><trkpt lat="43.11085951209378" lon="0.38513074584912704"><ele>619.0</ele><time>2026-04-01T13:28:53Z</time></trkpt><trkpt lat="43.11067753475518" lon="0.38517974592221965"><ele>620.0</ele><time>2026-04-01T13:28:54Z</time></trkpt><trkpt lat="43.11049094098646" lon="0.3852273432978878"><ele>621.0</ele><time>2026-04-01T13:28:55Z</time></trkpt><trkpt lat="43.11030507145126" lon="0.385276820680178"><ele>621.0</ele><time>2026-04-01T13:28:56Z</time></trkpt><trkpt lat="43.11011408246466" lon="0.38532200372704156"><ele>621.0</ele><time>2026-04-01T13:28:57Z</time></trkpt><trkpt lat="43.10992324565571" lon="0.3853661047444259"><ele>621.0</ele><time>2026-04-01T13:28:58Z</time></trkpt><trkpt lat="43.10973051040352" lon="0.385411622466548"><ele>620.3333333333334</ele><time>2026-04-01T13:28:59Z</time></trkpt><trkpt lat="43.10953714540488" lon="0.3854614896789765"><ele>619.6666666666667</ele><time>2026-04-01T13:29:00Z</time></trkpt><trkpt lat="43.10934387465305" lon="0.38551589493471494"><ele>619.0</ele><time>2026-04-01T13:29:01Z</time></trkpt><trkpt lat="43.10915127299702" lon="0.38557460342685046"><ele>619.0</ele><time>2026-04-01T13:29:02Z</time></trkpt><trkpt lat="43.10895903820562" lon="0.38564001791972646"><ele>619.0</ele><time>2026-04-01T13:29:03Z</time></trkpt><trkpt lat="43.10876767600217" lon="0.3857051092048313"><ele>619.0</ele><time>2026-04-01T13:29:04Z</time></trkpt><trkpt lat="43.108577716575404" lon="0.3857709630082744"><ele>619.0</ele><time>2026-04-01T13:29:05Z</time></trkpt><trkpt lat="43.10838907367537" lon="0.3858354330004663"><ele>619.0</ele><time>2026-04-01T13:29:06Z</time></trkpt><trkpt lat="43.108200929312055" lon="0.38589693455394025"><ele>619.0</ele><time>2026-04-01T13:29:07Z</time></trkpt><trkpt lat="43.108008972065846" lon="0.38595513866880665"><ele>619.0</ele><time>2026-04-01T13:29:08Z</time></trkpt><trkpt lat="43.1078174480953" lon="0.38600913345160826"><ele>619.0</ele><time>2026-04-01T13:29:09Z</time></trkpt><trkpt lat="43.10762832928093" lon="0.3860647133299458"><ele>619.0</ele><time>2026-04-01T13:29:10Z</time></trkpt><trkpt lat="43.10743755031837" lon="0.38612339790403466"><ele>620.0</ele><time>2026-04-01T13:29:11Z</time></trkpt><trkpt lat="43.107246946466354" lon="0.3861778394275151"><ele>621.0</ele><time>2026-04-01T13:29:12Z</time></trkpt><trkpt lat="43.10705304623568" lon="0.386233715210015"><ele>622.0</ele><time>2026-04-01T13:29:13Z</time></trkpt><trkpt lat="43.10685980727201" lon="0.3862913448497066"><ele>622.0</ele><time>2026-04-01T13:29:14Z</time></trkpt><trkpt lat="43.10666610625424" lon="0.38634996460449306"><ele>622.0</ele><time>2026-04-01T13:29:15Z</time></trkpt><trkpt lat="43.10647285876532" lon="0.3864042054195503"><ele>622.0</ele><time>2026-04-01T13:29:16Z</time></trkpt><trkpt lat="43.10627565525132" lon="0.38646235948371316"><ele>622.3333333333334</ele><time>2026-04-01T13:29:17Z</time></trkpt><trkpt lat="43.10608368665745" lon="0.38651745312111846"><ele>622.6666666666666</ele><time>2026-04-01T13:29:18Z</time></trkpt><trkpt lat="43.10588796837926" lon="0.38657580234032807"><ele>623.0</ele><time>2026-04-01T13:29:19Z</time></trkpt><trkpt lat="43.105694246521324" lon="0.3866285266686452"><ele>623.0</ele><time>2026-04-01T13:29:20Z</time></trkpt><trkpt lat="43.10550233539244" lon="0.38668530552537345"><ele>623.0</ele><time>2026-04-01T13:29:21Z</time></trkpt><trkpt lat="43.10530616923962" lon="0.3867435809714089"><ele>623.0</ele><time>2026-04-01T13:29:22Z</time></trkpt><trkpt lat="43.10511500500259" lon="0.38680136365870527"><ele>623.0</ele><time>2026-04-01T13:29:23Z</time></trkpt><trkpt lat="43.104923764347305" lon="0.38685846946236013"><ele>623.0</ele><time>2026-04-01T13:29:24Z</time></trkpt><trkpt lat="43.10474045299018" lon="0.38691163941756246"><ele>623.0</ele><time>2026-04-01T13:29:25Z</time></trkpt><trkpt lat="43.104570739307306" lon="0.38696187444753066"><ele>623.75</ele><time>2026-04-01T13:29:26Z</time></trkpt><trkpt lat="43.10441202695321" lon="0.38700665342937995"><ele>624.5</ele><time>2026-04-01T13:29:27Z</time></trkpt><trkpt lat="43.1042639793904" lon="0.3870451388502443"><ele>625.25</ele><time>2026-04-01T13:29:28Z</time></trkpt><trkpt lat="43.10413466829897" lon="0.38707766538440025"><ele>626.0</ele><time>2026-04-01T13:29:29Z</time></trkpt><trkpt lat="43.10402183602155" lon="0.38710279017948307"><ele>626.2</ele><time>2026-04-01T13:29:30Z</time></trkpt><trkpt lat="43.103924565682696" lon="0.38712088243652326"><ele>626.4000000000001</ele><time>2026-04-01T13:29:31Z</time></trkpt><trkpt lat="43.103833828562" lon="0.3871240794784517"><ele>626.6</ele><time>2026-04-01T13:29:32Z</time></trkpt><trkpt lat="43.103756570989155" lon="0.38709332778145755"><ele>626.8000000000001</ele><time>2026-04-01T13:29:33Z</time></trkpt><trkpt lat="43.10368258236039" lon="0.3870366801824028"><ele>627.0</ele><time>2026-04-01T13:29:34Z</time></trkpt><trkpt lat="43.10359022798321" lon="0.3869556531490674"><ele>627.0</ele><time>2026-04-01T13:29:35Z</time></trkpt><trkpt lat="43.10349390591831" lon="0.3868506005210945"><ele>627.0</ele><time>2026-04-01T13:29:36Z</time></trkpt><trkpt lat="43.10341884113326" lon="0.38673466079786784"><ele>627.0</ele><time>2026-04-01T13:29:37Z</time></trkpt><trkpt lat="43.10336812286852" lon="0.3866308517052947"><ele>627.0</ele><time>2026-04-01T13:29:38Z</time></trkpt><trkpt lat="43.103355185743965" lon="0.38652436579875443"><ele>627.0</ele><time>2026-04-01T13:29:39Z</time></trkpt><trkpt lat="43.10328208978033" lon="0.38644455553690515"><ele>626.8000000000001</ele><time>2026-04-01T13:29:41Z</time></trkpt><trkpt lat="43.10317782189143" lon="0.3863762325177893"><ele>626.6</ele><time>2026-04-01T13:29:42Z</time></trkpt><trkpt lat="43.10316138513053" lon="0.3865897766484535"><ele>626.4000000000001</ele><time>2026-04-01T13:29:43Z</time></trkpt><trkpt lat="43.10310044514208" lon="0.3866304046343649"><ele>626.2</ele><time>2026-04-01T13:29:44Z</time></trkpt><trkpt lat="43.10303851210717" lon="0.3866727400476144"><ele>626.0</ele><time>2026-04-01T13:29:45Z</time></trkpt><trkpt lat="43.1029592631099" lon="0.3867007014980089"><ele>626.0</ele><time>2026-04-01T13:29:47Z</time></trkpt><trkpt lat="43.10289367818546" lon="0.38664779221267165"><ele>626.0</ele><time>2026-04-01T13:29:49Z</time></trkpt><trkpt lat="43.10280217858075" lon="0.38666816613627886"><ele>626.0</ele><time>2026-04-01T13:29:51Z</time></trkpt><trkpt lat="43.10275407116676" lon="0.38690329302045967"><ele>626.0</ele><time>2026-04-01T13:29:54Z</time></trkpt><trkpt lat="43.1028563621615" lon="0.3868013109294509"><ele>626.0</ele><time>2026-04-01T13:29:58Z</time></trkpt><trkpt lat="43.102882481542444" lon="0.3868847322985245"><ele>626.0</ele><time>2026-04-01T13:29:59Z</time></trkpt><trkpt lat="43.10293971509043" lon="0.3868233256366804"><ele>626.0</ele><time>2026-04-01T13:32:02Z</time></trkpt><trkpt lat="43.102938571162454" lon="0.3867138943243753"><ele>626.0</ele><time>2026-04-01T13:32:04Z</time></trkpt><trkpt lat="43.10304317578583" lon="0.3866594828034584"><ele>626.0</ele><time>2026-04-01T13:32:07Z</time></trkpt><trkpt lat="43.1031059158717" lon="0.3866310222088184"><ele>626.0</ele><time>2026-04-01T13:32:08Z</time></trkpt><trkpt lat="43.1031732781711" lon="0.38662717174788236"><ele>626.0</ele><time>2026-04-01T13:32:09Z</time></trkpt><trkpt lat="43.10324066846715" lon="0.38662292625352435"><ele>626.0</ele><time>2026-04-01T13:32:10Z</time></trkpt><trkpt lat="43.103336061158394" lon="0.38659388586850035"><ele>626.0</ele><time>2026-04-01T13:32:12Z</time></trkpt><trkpt lat="43.10339428734818" lon="0.38670288540050113"><ele>626.0</ele><time>2026-04-01T13:32:14Z</time></trkpt><trkpt lat="43.10344887397432" lon="0.3867785937391368"><ele>626.0</ele><time>2026-04-01T13:32:15Z</time></trkpt><trkpt lat="43.103491957296946" lon="0.38686709475667985"><ele>626.0</ele><time>2026-04-01T13:32:16Z</time></trkpt><trkpt lat="43.103513554177155" lon="0.38704415882417176"><ele>626.1666666666666</ele><time>2026-04-01T13:32:18Z</time></trkpt><trkpt lat="43.10349213349778" lon="0.38713597567964037"><ele>626.3333333333333</ele><time>2026-04-01T13:32:19Z</time></trkpt><trkpt lat="43.103449739863336" lon="0.38722621017314385"><ele>626.5</ele><time>2026-04-01T13:32:20Z</time></trkpt><trkpt lat="43.1033778273086" lon="0.3872881947858006"><ele>626.6666666666666</ele><time>2026-04-01T13:32:21Z</time></trkpt><trkpt lat="43.10328770431475" lon="0.38731853602004135"><ele>626.8333333333334</ele><time>2026-04-01T13:32:22Z</time></trkpt><trkpt lat="43.10316670844073" lon="0.3873464396570546"><ele>627.0</ele><time>2026-04-01T13:32:23Z</time></trkpt><trkpt lat="43.10302049093043" lon="0.38737133008231195"><ele>628.3333333333334</ele><time>2026-04-01T13:32:24Z</time></trkpt><trkpt lat="43.10286673429586" lon="0.3874058133829454"><ele>629.6666666666667</ele><time>2026-04-01T13:32:25Z</time></trkpt><trkpt lat="43.102687871186994" lon="0.3874326335062849"><ele>631.0</ele><time>2026-04-01T13:32:26Z</time></trkpt><trkpt lat="43.10249636215875" lon="0.38745489698808266"><ele>632.3333333333334</ele><time>2026-04-01T13:32:27Z</time></trkpt><trkpt lat="43.10231758874241" lon="0.3874786006370118"><ele>633.6666666666666</ele><time>2026-04-01T13:32:28Z</time></trkpt><trkpt lat="43.102131967208905" lon="0.3875057572605795"><ele>635.0</ele><time>2026-04-01T13:32:29Z</time></trkpt><trkpt lat="43.101944300606476" lon="0.38753713078943236"><ele>635.0</ele><time>2026-04-01T13:32:30Z</time></trkpt><trkpt lat="43.10176383614909" lon="0.38756519690648483"><ele>635.0</ele><time>2026-04-01T13:32:31Z</time></trkpt><trkpt lat="43.101585462985554" lon="0.3875915214954452"><ele>635.0</ele><time>2026-04-01T13:32:32Z</time></trkpt><trkpt lat="43.10141101407432" lon="0.3876131859261815"><ele>634.3333333333333</ele><time>2026-04-01T13:32:33Z</time></trkpt><trkpt lat="43.10123631345132" lon="0.3876380793648514"><ele>633.6666666666666</ele><time>2026-04-01T13:32:34Z</time></trkpt><trkpt lat="43.10105792150368" lon="0.38766217495414096"><ele>633.0</ele><time>2026-04-01T13:32:35Z</time></trkpt><trkpt lat="43.10088190974935" lon="0.3876870073555467"><ele>632.3333333333334</ele><time>2026-04-01T13:32:36Z</time></trkpt><trkpt lat="43.10070724839807" lon="0.3877134488102322"><ele>631.6666666666667</ele><time>2026-04-01T13:32:37Z</time></trkpt><trkpt lat="43.10053273715719" lon="0.3877423954614518"><ele>631.0</ele><time>2026-04-01T13:32:38Z</time></trkpt><trkpt lat="43.100360616971216" lon="0.3877707028950334"><ele>631.0</ele><time>2026-04-01T13:32:39Z</time></trkpt><trkpt lat="43.100189283731886" lon="0.3877983730850242"><ele>631.0</ele><time>2026-04-01T13:32:40Z</time></trkpt><trkpt lat="43.100014613808376" lon="0.3878353859896222"><ele>631.0</ele><time>2026-04-01T13:32:41Z</time></trkpt><trkpt lat="43.09984015483023" lon="0.38788322521658036"><ele>631.3333333333334</ele><time>2026-04-01T13:32:42Z</time></trkpt><trkpt lat="43.09966489367231" lon="0.38793625776023155"><ele>631.6666666666666</ele><time>2026-04-01T13:32:43Z</time></trkpt><trkpt lat="43.09948873795042" lon="0.38799749743274825"><ele>632.0</ele><time>2026-04-01T13:32:44Z</time></trkpt><trkpt lat="43.09931389921162" lon="0.3880663777073548"><ele>633.0</ele><time>2026-04-01T13:32:45Z</time></trkpt><trkpt lat="43.099141715348544" lon="0.3881413957063569"><ele>634.0</ele><time>2026-04-01T13:32:46Z</time></trkpt><trkpt lat="43.09897558887907" lon="0.38821490985515644"><ele>635.0</ele><time>2026-04-01T13:32:47Z</time></trkpt><trkpt lat="43.098811528310456" lon="0.3882791599026641"><ele>635.3333333333333</ele><time>2026-04-01T13:32:48Z</time></trkpt><trkpt lat="43.09865231004891" lon="0.3883404863735759"><ele>635.6666666666666</ele><time>2026-04-01T13:32:49Z</time></trkpt><trkpt lat="43.09849500056049" lon="0.3884028195709453"><ele>636.0</ele><time>2026-04-01T13:32:50Z</time></trkpt><trkpt lat="43.09833983701002" lon="0.3884647919246734"><ele>635.6666666666666</ele><time>2026-04-01T13:32:51Z</time></trkpt><trkpt lat="43.09818330278477" lon="0.38852996728111194"><ele>635.3333333333333</ele><time>2026-04-01T13:32:52Z</time></trkpt><trkpt lat="43.09802913773033" lon="0.3885924414432363"><ele>635.0</ele><time>2026-04-01T13:32:53Z</time></trkpt><trkpt lat="43.09787698610515" lon="0.38865900792610464"><ele>635.0</ele><time>2026-04-01T13:32:54Z</time></trkpt><trkpt lat="43.09773138721951" lon="0.38872807036654794"><ele>635.0</ele><time>2026-04-01T13:32:55Z</time></trkpt><trkpt lat="43.097593516550575" lon="0.3887965737161866"><ele>635.0</ele><time>2026-04-01T13:32:56Z</time></trkpt><trkpt lat="43.097462447183034" lon="0.3888670575721231"><ele>635.0</ele><time>2026-04-01T13:32:57Z</time></trkpt><trkpt lat="43.09733816490226" lon="0.3889470073353103"><ele>634.25</ele><time>2026-04-01T13:32:58Z</time></trkpt><trkpt lat="43.09721816372224" lon="0.3890330080579973"><ele>633.5</ele><time>2026-04-01T13:32:59Z</time></trkpt><trkpt lat="43.097109651871115" lon="0.3891206671617963"><ele>632.75</ele><time>2026-04-01T13:33:00Z</time></trkpt><trkpt lat="43.09700132935233" lon="0.3891770178037711"><ele>632.0</ele><time>2026-04-01T13:33:01Z</time></trkpt><trkpt lat="43.09690293265356" lon="0.3892480578812928"><ele>632.0</ele><time>2026-04-01T13:33:02Z</time></trkpt><trkpt lat="43.09679562409914" lon="0.3893036170247022"><ele>632.0</ele><time>2026-04-01T13:33:03Z</time></trkpt><trkpt lat="43.0967186042997" lon="0.38936165355626584"><ele>632.0</ele><time>2026-04-01T13:33:04Z</time></trkpt><trkpt lat="43.09665749951965" lon="0.3894081733338323"><ele>632.0</ele><time>2026-04-01T13:33:05Z</time></trkpt><trkpt lat="43.09660168621671" lon="0.3894498000816199"><ele>632.0</ele><time>2026-04-01T13:33:06Z</time></trkpt><trkpt lat="43.09651091888494" lon="0.3894844219608328"><ele>632.0</ele><time>2026-04-01T13:33:08Z</time></trkpt><trkpt lat="43.0964373466317" lon="0.38949417925409624"><ele>632.0</ele><time>2026-04-01T13:33:10Z</time></trkpt><trkpt lat="43.09636906711504" lon="0.38950323460897773"><ele>632.0</ele><time>2026-04-01T13:33:13Z</time></trkpt><trkpt lat="43.09629035430443" lon="0.38943346082130603"><ele>632.0</ele><time>2026-04-01T13:33:15Z</time></trkpt><trkpt lat="43.096151630534386" lon="0.3893900841582734"><ele>632.0</ele><time>2026-04-01T13:33:17Z</time></trkpt><trkpt lat="43.09608254240419" lon="0.3894111835365694"><ele>632.0</ele><time>2026-04-01T13:33:18Z</time></trkpt><trkpt lat="43.09601758138721" lon="0.3894599396296401"><ele>632.0</ele><time>2026-04-01T13:33:19Z</time></trkpt><trkpt lat="43.095969646270774" lon="0.38954448595693025"><ele>632.0</ele><time>2026-04-01T13:33:20Z</time></trkpt><trkpt lat="43.09592978857054" lon="0.3896184738073987"><ele>632.0</ele><time>2026-04-01T13:33:21Z</time></trkpt><trkpt lat="43.09590475804799" lon="0.38970597336285634"><ele>632.0</ele><time>2026-04-01T13:33:22Z</time></trkpt><trkpt lat="43.09590868554201" lon="0.3898593157842989"><ele>632.0</ele><time>2026-04-01T13:33:24Z</time></trkpt><trkpt lat="43.0959770118947" lon="0.38996782858646784"><ele>632.0</ele><time>2026-04-01T13:33:26Z</time></trkpt><trkpt lat="43.09605250653332" lon="0.3900566146817589"><ele>632.2</ele><time>2026-04-01T13:33:28Z</time></trkpt><trkpt lat="43.09617195747022" lon="0.3900955239128171"><ele>632.4000000000001</ele><time>2026-04-01T13:33:30Z</time></trkpt><trkpt lat="43.096251674190285" lon="0.390102730571534"><ele>632.5999999999999</ele><time>2026-04-01T13:33:31Z</time></trkpt><trkpt lat="43.09633952408829" lon="0.3901162975310947"><ele>632.8</ele><time>2026-04-01T13:33:32Z</time></trkpt><trkpt lat="43.096433888305604" lon="0.3901483079662135"><ele>633.0</ele><time>2026-04-01T13:33:33Z</time></trkpt><trkpt lat="43.09654271468062" lon="0.39017353887692274"><ele>633.0</ele><time>2026-04-01T13:33:34Z</time></trkpt><trkpt lat="43.09665273221005" lon="0.39022005483857075"><ele>633.0</ele><time>2026-04-01T13:33:35Z</time></trkpt><trkpt lat="43.09676465412118" lon="0.3902997068867405"><ele>633.0</ele><time>2026-04-01T13:33:36Z</time></trkpt><trkpt lat="43.09689131819335" lon="0.39032404235838164"><ele>633.0</ele><time>2026-04-01T13:33:37Z</time></trkpt><trkpt lat="43.097023991235886" lon="0.3903098295390679"><ele>633.0</ele><time>2026-04-01T13:33:38Z</time></trkpt><trkpt lat="43.09715450379609" lon="0.39031743268970903"><ele>633.0</ele><time>2026-04-01T13:33:39Z</time></trkpt><trkpt lat="43.09727937460753" lon="0.39032674828281566"><ele>633.0</ele><time>2026-04-01T13:33:40Z</time></trkpt><trkpt lat="43.09739305125819" lon="0.3903354038758311"><ele>633.0</ele><time>2026-04-01T13:33:41Z</time></trkpt><trkpt lat="43.09749222868139" lon="0.39034295544379544"><ele>633.3333333333334</ele><time>2026-04-01T13:33:42Z</time></trkpt><trkpt lat="43.09757794416307" lon="0.39034938465199365"><ele>633.6666666666666</ele><time>2026-04-01T13:33:43Z</time></trkpt><trkpt lat="43.09765326426892" lon="0.3903556386557717"><ele>634.0</ele><time>2026-04-01T13:33:44Z</time></trkpt><trkpt lat="43.097719156648715" lon="0.390361109849496"><ele>634.3333333333333</ele><time>2026-04-01T13:33:45Z</time></trkpt><trkpt lat="43.097798877770025" lon="0.3903670534702658"><ele>634.6666666666666</ele><time>2026-04-01T13:33:47Z</time></trkpt><trkpt lat="43.09789155684396" lon="0.3903733320782921"><ele>635.0</ele><time>2026-04-01T13:34:07Z</time></trkpt><trkpt lat="43.09798114894596" lon="0.39037781955061196"><ele>635.0</ele><time>2026-04-01T13:34:08Z</time></trkpt><trkpt lat="43.09807328813956" lon="0.3903823103185216"><ele>635.0</ele><time>2026-04-01T13:34:09Z</time></trkpt><trkpt lat="43.09815164703007" lon="0.3903872799277436"><ele>635.0</ele><time>2026-04-01T13:34:10Z</time></trkpt><trkpt lat="43.098239733100506" lon="0.3903928664310611"><ele>635.0</ele><time>2026-04-01T13:34:12Z</time></trkpt><trkpt lat="43.098363055561414" lon="0.3904006876776685"><ele>635.0</ele><time>2026-04-01T13:34:23Z</time></trkpt><trkpt lat="43.0984648550222" lon="0.39040751874852"><ele>635.5</ele><time>2026-04-01T13:34:24Z</time></trkpt><trkpt lat="43.09858126070165" lon="0.39041634562249106"><ele>636.0</ele><time>2026-04-01T13:34:25Z</time></trkpt><trkpt lat="43.09871411822984" lon="0.3904278694383199"><ele>636.5</ele><time>2026-04-01T13:34:26Z</time></trkpt><trkpt lat="43.098864587283785" lon="0.39043705540097395"><ele>637.0</ele><time>2026-04-01T13:34:27Z</time></trkpt><trkpt lat="43.099016468695176" lon="0.3905684632484408"><ele>635.3333333333334</ele><time>2026-04-01T13:34:28Z</time></trkpt><trkpt lat="43.09916649366771" lon="0.390633575065002"><ele>633.6666666666666</ele><time>2026-04-01T13:34:29Z</time></trkpt><trkpt lat="43.099310186871946" lon="0.3907353026570563"><ele>632.0</ele><time>2026-04-01T13:34:30Z</time></trkpt><trkpt lat="43.09944185509099" lon="0.3908761425202262"><ele>632.0</ele><time>2026-04-01T13:34:31Z</time></trkpt><trkpt lat="43.099566222957044" lon="0.3910583938695023"><ele>632.0</ele><time>2026-04-01T13:34:32Z</time></trkpt><trkpt lat="43.099672190918525" lon="0.3912660338694234"><ele>632.0</ele><time>2026-04-01T13:34:33Z</time></trkpt><trkpt lat="43.09975678309928" lon="0.39150659394473075"><ele>632.0</ele><time>2026-04-01T13:34:34Z</time></trkpt><trkpt lat="43.0998138158053" lon="0.3917739489824076"><ele>632.0</ele><time>2026-04-01T13:34:35Z</time></trkpt><trkpt lat="43.09983418673641" lon="0.3920572276801784"><ele>632.0</ele><time>2026-04-01T13:34:36Z</time></trkpt><trkpt lat="43.099819870860436" lon="0.39235358863555436"><ele>632.0</ele><time>2026-04-01T13:34:37Z</time></trkpt><trkpt lat="43.09977846112486" lon="0.39266494676644476"><ele>632.0</ele><time>2026-04-01T13:34:38Z</time></trkpt><trkpt lat="43.09971963954794" lon="0.39299480584376584"><ele>631.0</ele><time>2026-04-01T13:34:39Z</time></trkpt><trkpt lat="43.099656595854995" lon="0.3933476795561948"><ele>630.0</ele><time>2026-04-01T13:34:40Z</time></trkpt><trkpt lat="43.09959758002296" lon="0.39372423351834723"><ele>629.0</ele><time>2026-04-01T13:34:41Z</time></trkpt><trkpt lat="43.09953558030727" lon="0.3941228803127091"><ele>628.0</ele><time>2026-04-01T13:34:42Z</time></trkpt><trkpt lat="43.0994703610825" lon="0.3945404584913675"><ele>628.5</ele><time>2026-04-01T13:34:43Z</time></trkpt><trkpt lat="43.09940954228642" lon="0.39495225992466393"><ele>629.0</ele><time>2026-04-01T13:34:44Z</time></trkpt><trkpt lat="43.099356438230544" lon="0.39536643105462255"><ele>629.0</ele><time>2026-04-01T13:34:45Z</time></trkpt><trkpt lat="43.099311394245106" lon="0.3957851923055348"><ele>629.0</ele><time>2026-04-01T13:34:46Z</time></trkpt><trkpt lat="43.09927389992184" lon="0.3962042503787144"><ele>629.5</ele><time>2026-04-01T13:34:47Z</time></trkpt><trkpt lat="43.09923435748367" lon="0.39663371207291326"><ele>630.0</ele><time>2026-04-01T13:34:48Z</time></trkpt><trkpt lat="43.099192012845556" lon="0.3970790382304449"><ele>628.5</ele><time>2026-04-01T13:34:49Z</time></trkpt><trkpt lat="43.099148511825966" lon="0.39753370879162"><ele>627.0</ele><time>2026-04-01T13:34:50Z</time></trkpt><trkpt lat="43.09912271719135" lon="0.39798025960336997"><ele>627.0</ele><time>2026-04-01T13:34:51Z</time></trkpt><trkpt lat="43.09910413737775" lon="0.39841071391736727"><ele>627.0</ele><time>2026-04-01T13:34:52Z</time></trkpt><trkpt lat="43.09908737509356" lon="0.3988357425950474"><ele>627.0</ele><time>2026-04-01T13:34:53Z</time></trkpt><trkpt lat="43.09907348891223" lon="0.39925176585275574"><ele>627.0</ele><time>2026-04-01T13:34:54Z</time></trkpt><trkpt lat="43.09906580078022" lon="0.39966509218068724"><ele>626.5</ele><time>2026-04-01T13:34:55Z</time></trkpt><trkpt lat="43.09906367220271" lon="0.4000750550631502"><ele>626.0</ele><time>2026-04-01T13:34:56Z</time></trkpt><trkpt lat="43.09906476507416" lon="0.40048659689098665"><ele>625.0</ele><time>2026-04-01T13:34:57Z</time></trkpt><trkpt lat="43.09906824443985" lon="0.40089223359830445"><ele>624.0</ele><time>2026-04-01T13:34:58Z</time></trkpt><trkpt lat="43.09907711042013" lon="0.40129261961923773"><ele>623.5</ele><time>2026-04-01T13:34:59Z</time></trkpt><trkpt lat="43.09909088301059" lon="0.4016891101786359"><ele>623.0</ele><time>2026-04-01T13:35:00Z</time></trkpt><trkpt lat="43.09911027206245" lon="0.40208006495728654"><ele>622.5</ele><time>2026-04-01T13:35:01Z</time></trkpt><trkpt lat="43.099139319366266" lon="0.40247389053288296"><ele>622.0</ele><time>2026-04-01T13:35:02Z</time></trkpt><trkpt lat="43.0991797611102" lon="0.40288463103849315"><ele>621.0</ele><time>2026-04-01T13:35:03Z</time></trkpt><trkpt lat="43.099221171512696" lon="0.4033066546490511"><ele>620.0</ele><time>2026-04-01T13:35:04Z</time></trkpt><trkpt lat="43.099260834441765" lon="0.4037345348998619"><ele>620.0</ele><time>2026-04-01T13:35:05Z</time></trkpt><trkpt lat="43.09930210175541" lon="0.40417520138540164"><ele>620.0</ele><time>2026-04-01T13:35:06Z</time></trkpt><trkpt lat="43.09934374160884" lon="0.4046113390971216"><ele>619.5</ele><time>2026-04-01T13:35:07Z</time></trkpt><trkpt lat="43.099388561617424" lon="0.405042656186202"><ele>619.0</ele><time>2026-04-01T13:35:08Z</time></trkpt><trkpt lat="43.099433135930155" lon="0.4054682588207675"><ele>618.0</ele><time>2026-04-01T13:35:09Z</time></trkpt><trkpt lat="43.09948610014631" lon="0.40589654700028427"><ele>617.0</ele><time>2026-04-01T13:35:10Z</time></trkpt><trkpt lat="43.09954152417059" lon="0.40631885381279065"><ele>617.5</ele><time>2026-04-01T13:35:11Z</time></trkpt><trkpt lat="43.09960402298031" lon="0.40673421135403753"><ele>618.0</ele><time>2026-04-01T13:35:12Z</time></trkpt><trkpt lat="43.09967318899694" lon="0.4071450731998481"><ele>619.5</ele><time>2026-04-01T13:35:13Z</time></trkpt><trkpt lat="43.099749085236766" lon="0.40755194606735284"><ele>621.0</ele><time>2026-04-01T13:35:14Z</time></trkpt><trkpt lat="43.09982977800702" lon="0.40795140965190235"><ele>620.0</ele><time>2026-04-01T13:35:15Z</time></trkpt><trkpt lat="43.099918092714205" lon="0.40835291852157357"><ele>619.0</ele><time>2026-04-01T13:35:16Z</time></trkpt><trkpt lat="43.10001134777009" lon="0.4087528635528013"><ele>620.0</ele><time>2026-04-01T13:35:17Z</time></trkpt><trkpt lat="43.1001075297491" lon="0.4091552382266027"><ele>621.0</ele><time>2026-04-01T13:35:18Z</time></trkpt><trkpt lat="43.10020742401386" lon="0.40956102191146193"><ele>621.0</ele><time>2026-04-01T13:35:19Z</time></trkpt><trkpt lat="43.10030800668735" lon="0.40996780863739307"><ele>621.0</ele><time>2026-04-01T13:35:20Z</time></trkpt><trkpt lat="43.10041648733003" lon="0.4103768447274552"><ele>622.0</ele><time>2026-04-01T13:35:21Z</time></trkpt><trkpt lat="43.10052765163077" lon="0.41077991072579495"><ele>623.0</ele><time>2026-04-01T13:35:22Z</time></trkpt><trkpt lat="43.1006453228418" lon="0.4111899358691389"><ele>619.0</ele><time>2026-04-01T13:35:23Z</time></trkpt><trkpt lat="43.100761962646644" lon="0.41159289337604815"><ele>615.0</ele><time>2026-04-01T13:35:24Z</time></trkpt><trkpt lat="43.10087448876281" lon="0.4119996653742976"><ele>615.5</ele><time>2026-04-01T13:35:25Z</time></trkpt><trkpt lat="43.10099237097201" lon="0.4124036709098007"><ele>616.0</ele><time>2026-04-01T13:35:26Z</time></trkpt><trkpt lat="43.10111552621833" lon="0.4128049298037812"><ele>615.5</ele><time>2026-04-01T13:35:27Z</time></trkpt><trkpt lat="43.10123487103818" lon="0.413211518774368"><ele>615.0</ele><time>2026-04-01T13:35:28Z</time></trkpt><trkpt lat="43.101351463591946" lon="0.4136136612214405"><ele>614.0</ele><time>2026-04-01T13:35:29Z</time></trkpt><trkpt lat="43.101469650522304" lon="0.4140199545411463"><ele>613.0</ele><time>2026-04-01T13:35:30Z</time></trkpt><trkpt lat="43.1015892059331" lon="0.4144414170992312"><ele>614.0</ele><time>2026-04-01T13:35:31Z</time></trkpt><trkpt lat="43.10170960431491" lon="0.41486718394438554"><ele>615.0</ele><time>2026-04-01T13:35:32Z</time></trkpt><trkpt lat="43.10182904375282" lon="0.4152913432637286"><ele>615.5</ele><time>2026-04-01T13:35:33Z</time></trkpt><trkpt lat="43.101950362657554" lon="0.41572986994851263"><ele>616.0</ele><time>2026-04-01T13:35:34Z</time></trkpt><trkpt lat="43.10206626408316" lon="0.41617593239060846"><ele>614.5</ele><time>2026-04-01T13:35:35Z</time></trkpt><trkpt lat="43.10217797215733" lon="0.4166335002523615"><ele>613.0</ele><time>2026-04-01T13:35:36Z</time></trkpt><trkpt lat="43.10230788913674" lon="0.4170134665582854"><ele>613.0</ele><time>2026-04-01T13:35:37Z</time></trkpt><trkpt lat="43.1024207430131" lon="0.41743466405746676"><ele>613.0</ele><time>2026-04-01T13:35:38Z</time></trkpt><trkpt lat="43.102529892550635" lon="0.4178585536504436"><ele>613.0</ele><time>2026-04-01T13:35:39Z</time></trkpt><trkpt lat="43.102632342798984" lon="0.4182922674441238"><ele>613.0</ele><time>2026-04-01T13:35:40Z</time></trkpt><trkpt lat="43.102732683345224" lon="0.4187353141451379"><ele>612.5</ele><time>2026-04-01T13:35:41Z</time></trkpt><trkpt lat="43.102829184796946" lon="0.4191808902841295"><ele>612.0</ele><time>2026-04-01T13:35:42Z</time></trkpt><trkpt lat="43.10292635513193" lon="0.41962400764498475"><ele>613.0</ele><time>2026-04-01T13:35:43Z</time></trkpt><trkpt lat="43.10302521837928" lon="0.42007974290286876"><ele>614.0</ele><time>2026-04-01T13:35:44Z</time></trkpt><trkpt lat="43.10311701857076" lon="0.4205367761505742"><ele>614.0</ele><time>2026-04-01T13:35:45Z</time></trkpt><trkpt lat="43.10320075472525" lon="0.4209924344619206"><ele>614.0</ele><time>2026-04-01T13:35:46Z</time></trkpt><trkpt lat="43.10328444861871" lon="0.42145502524126127"><ele>611.5</ele><time>2026-04-01T13:35:47Z</time></trkpt><trkpt lat="43.103369246673125" lon="0.42192050254329455"><ele>609.0</ele><time>2026-04-01T13:35:48Z</time></trkpt><trkpt lat="43.10345298034852" lon="0.42238057473510804"><ele>609.0</ele><time>2026-04-01T13:35:49Z</time></trkpt><trkpt lat="43.10353317287264" lon="0.4228391973127838"><ele>609.0</ele><time>2026-04-01T13:35:50Z</time></trkpt><trkpt lat="43.103609132662406" lon="0.42329585150125965"><ele>608.5</ele><time>2026-04-01T13:35:51Z</time></trkpt><trkpt lat="43.103683114868254" lon="0.423753607535256"><ele>608.0</ele><time>2026-04-01T13:35:52Z</time></trkpt><trkpt lat="43.1037557835274" lon="0.424200873360599"><ele>608.5</ele><time>2026-04-01T13:35:53Z</time></trkpt><trkpt lat="43.10382485622009" lon="0.4246509028756954"><ele>609.0</ele><time>2026-04-01T13:35:54Z</time></trkpt><trkpt lat="43.103897848972885" lon="0.42510037140985285"><ele>610.0</ele><time>2026-04-01T13:35:55Z</time></trkpt><trkpt lat="43.10396910327725" lon="0.42555759535175786"><ele>611.0</ele><time>2026-04-01T13:35:56Z</time></trkpt><trkpt lat="43.10404249002296" lon="0.426008370411052"><ele>608.5</ele><time>2026-04-01T13:35:57Z</time></trkpt><trkpt lat="43.10411481431864" lon="0.42646012051765864"><ele>606.0</ele><time>2026-04-01T13:35:58Z</time></trkpt><trkpt lat="43.10418825431268" lon="0.4269154379435162"><ele>606.0</ele><time>2026-04-01T13:35:59Z</time></trkpt><trkpt lat="43.10425393529848" lon="0.4273697850499456"><ele>606.0</ele><time>2026-04-01T13:36:00Z</time></trkpt><trkpt lat="43.10432381151268" lon="0.42781915980646523"><ele>605.5</ele><time>2026-04-01T13:36:01Z</time></trkpt><trkpt lat="43.10440050079553" lon="0.42827236615733144"><ele>605.0</ele><time>2026-04-01T13:36:02Z</time></trkpt><trkpt lat="43.10447747297656" lon="0.42873810511411115"><ele>605.0</ele><time>2026-04-01T13:36:03Z</time></trkpt><trkpt lat="43.1045502083142" lon="0.4291900272591441"><ele>605.0</ele><time>2026-04-01T13:36:04Z</time></trkpt><trkpt lat="43.104623473147534" lon="0.42964512675124344"><ele>604.5</ele><time>2026-04-01T13:36:05Z</time></trkpt><trkpt lat="43.10469934797582" lon="0.4301144615570527"><ele>604.0</ele><time>2026-04-01T13:36:06Z</time></trkpt><trkpt lat="43.10477179941095" lon="0.43058181721774075"><ele>604.0</ele><time>2026-04-01T13:36:07Z</time></trkpt><trkpt lat="43.10484447435356" lon="0.4310443143204468"><ele>604.0</ele><time>2026-04-01T13:36:08Z</time></trkpt><trkpt lat="43.10491564073116" lon="0.43150786455439893"><ele>603.0</ele><time>2026-04-01T13:36:09Z</time></trkpt><trkpt lat="43.104986886400944" lon="0.43197289424449176"><ele>602.0</ele><time>2026-04-01T13:36:10Z</time></trkpt><trkpt lat="43.10506140872663" lon="0.43243476152691335"><ele>602.0</ele><time>2026-04-01T13:36:11Z</time></trkpt><trkpt lat="43.1051353181944" lon="0.43289544955741927"><ele>602.0</ele><time>2026-04-01T13:36:12Z</time></trkpt><trkpt lat="43.105207856234344" lon="0.4333544544570923"><ele>601.5</ele><time>2026-04-01T13:36:13Z</time></trkpt><trkpt lat="43.105280842219074" lon="0.4338070975895835"><ele>601.0</ele><time>2026-04-01T13:36:14Z</time></trkpt><trkpt lat="43.10535506800905" lon="0.43425786909445724"><ele>601.0</ele><time>2026-04-01T13:36:15Z</time></trkpt><trkpt lat="43.10542718147264" lon="0.43470905823037964"><ele>601.0</ele><time>2026-04-01T13:36:16Z</time></trkpt><trkpt lat="43.10549779232963" lon="0.4351593041537994"><ele>601.0</ele><time>2026-04-01T13:36:17Z</time></trkpt><trkpt lat="43.10556825650438" lon="0.4356069525402805"><ele>601.0</ele><time>2026-04-01T13:36:18Z</time></trkpt><trkpt lat="43.105637868207594" lon="0.4360551618399255"><ele>600.5</ele><time>2026-04-01T13:36:19Z</time></trkpt><trkpt lat="43.105705615349194" lon="0.4364993033748799"><ele>600.0</ele><time>2026-04-01T13:36:20Z</time></trkpt><trkpt lat="43.105769478768835" lon="0.43693706621460615"><ele>600.0</ele><time>2026-04-01T13:36:21Z</time></trkpt><trkpt lat="43.105834010142196" lon="0.4373722133283216"><ele>600.0</ele><time>2026-04-01T13:36:22Z</time></trkpt><trkpt lat="43.10590239246616" lon="0.43780192403287155"><ele>599.5</ele><time>2026-04-01T13:36:23Z</time></trkpt><trkpt lat="43.105973087198564" lon="0.4382247491347834"><ele>599.0</ele><time>2026-04-01T13:36:24Z</time></trkpt><trkpt lat="43.10603940766345" lon="0.4386486730669776"><ele>599.0</ele><time>2026-04-01T13:36:25Z</time></trkpt><trkpt lat="43.10610534141547" lon="0.43906500647643615"><ele>599.0</ele><time>2026-04-01T13:36:26Z</time></trkpt><trkpt lat="43.1061682437586" lon="0.4394849901392571"><ele>599.0</ele><time>2026-04-01T13:36:27Z</time></trkpt><trkpt lat="43.10623431693119" lon="0.4399013285297949"><ele>599.0</ele><time>2026-04-01T13:36:28Z</time></trkpt><trkpt lat="43.10630468209096" lon="0.4403141293327002"><ele>598.5</ele><time>2026-04-01T13:36:29Z</time></trkpt><trkpt lat="43.10637020880642" lon="0.4407218027969042"><ele>598.0</ele><time>2026-04-01T13:36:30Z</time></trkpt><trkpt lat="43.10643632360491" lon="0.4411272252856046"><ele>597.5</ele><time>2026-04-01T13:36:31Z</time></trkpt><trkpt lat="43.106502343035295" lon="0.4415339465388447"><ele>597.0</ele><time>2026-04-01T13:36:32Z</time></trkpt><trkpt lat="43.10656680439372" lon="0.44193439353807185"><ele>597.5</ele><time>2026-04-01T13:36:33Z</time></trkpt><trkpt lat="43.10663786050998" lon="0.4423342482263171"><ele>598.0</ele><time>2026-04-01T13:36:34Z</time></trkpt><trkpt lat="43.10671444862253" lon="0.4427374654703944"><ele>597.0</ele><time>2026-04-01T13:36:35Z</time></trkpt><trkpt lat="43.10679261449212" lon="0.4431413860005376"><ele>596.0</ele><time>2026-04-01T13:36:36Z</time></trkpt><trkpt lat="43.10686412226954" lon="0.4435531806133405"><ele>596.0</ele><time>2026-04-01T13:36:37Z</time></trkpt><trkpt lat="43.106929476142156" lon="0.4439744929093687"><ele>596.0</ele><time>2026-04-01T13:36:38Z</time></trkpt><trkpt lat="43.106995665042085" lon="0.44439423428093106"><ele>595.0</ele><time>2026-04-01T13:36:39Z</time></trkpt><trkpt lat="43.1070599488481" lon="0.4448104317161468"><ele>594.0</ele><time>2026-04-01T13:36:40Z</time></trkpt><trkpt lat="43.10712160071848" lon="0.4452189081995118"><ele>593.5</ele><time>2026-04-01T13:36:41Z</time></trkpt><trkpt lat="43.107182872697116" lon="0.4456204998998911"><ele>593.0</ele><time>2026-04-01T13:36:42Z</time></trkpt><trkpt lat="43.10724199678181" lon="0.4460156219771209"><ele>593.0</ele><time>2026-04-01T13:36:43Z</time></trkpt><trkpt lat="43.10729614840247" lon="0.4463886778271281"><ele>593.0</ele><time>2026-04-01T13:36:44Z</time></trkpt><trkpt lat="43.1073494569454" lon="0.4467427814251262"><ele>593.0</ele><time>2026-04-01T13:36:45Z</time></trkpt><trkpt lat="43.10740356618463" lon="0.44708555303437064"><ele>593.0</ele><time>2026-04-01T13:36:46Z</time></trkpt><trkpt lat="43.10745876035581" lon="0.44742045621072657"><ele>593.0</ele><time>2026-04-01T13:36:47Z</time></trkpt><trkpt lat="43.10751430503805" lon="0.4477564623042223"><ele>593.0</ele><time>2026-04-01T13:36:48Z</time></trkpt><trkpt lat="43.10756788192527" lon="0.44809255913434876"><ele>593.5</ele><time>2026-04-01T13:36:49Z</time></trkpt><trkpt lat="43.10761899351817" lon="0.44842465182614866"><ele>594.0</ele><time>2026-04-01T13:36:50Z</time></trkpt><trkpt lat="43.107666490671726" lon="0.4487381649175186"><ele>594.0</ele><time>2026-04-01T13:36:51Z</time></trkpt><trkpt lat="43.10771908876577" lon="0.4490587853931075"><ele>594.0</ele><time>2026-04-01T13:36:52Z</time></trkpt><trkpt lat="43.10777304136485" lon="0.44939797245294694"><ele>593.5</ele><time>2026-04-01T13:36:53Z</time></trkpt><trkpt lat="43.10783007987786" lon="0.44974286470736063"><ele>593.0</ele><time>2026-04-01T13:36:54Z</time></trkpt><trkpt lat="43.10788752809854" lon="0.45008922039787863"><ele>593.0</ele><time>2026-04-01T13:36:55Z</time></trkpt><trkpt lat="43.10794330608968" lon="0.45042981705920787"><ele>593.0</ele><time>2026-04-01T13:36:56Z</time></trkpt><trkpt lat="43.107993343493405" lon="0.45074518062276364"><ele>592.5</ele><time>2026-04-01T13:36:57Z</time></trkpt><trkpt lat="43.10803848785825" lon="0.45105260452513357"><ele>592.0</ele><time>2026-04-01T13:36:58Z</time></trkpt><trkpt lat="43.108085290829024" lon="0.4513626973792494"><ele>591.0</ele><time>2026-04-01T13:36:59Z</time></trkpt><trkpt lat="43.1081279338717" lon="0.4516772221113423"><ele>590.0</ele><time>2026-04-01T13:37:00Z</time></trkpt><trkpt lat="43.10816829984646" lon="0.4519880206780512"><ele>590.0</ele><time>2026-04-01T13:37:01Z</time></trkpt><trkpt lat="43.10821008530643" lon="0.4522979525146025"><ele>590.0</ele><time>2026-04-01T13:37:02Z</time></trkpt><trkpt lat="43.10825134102672" lon="0.4526200284470231"><ele>589.5</ele><time>2026-04-01T13:37:03Z</time></trkpt><trkpt lat="43.10828986097182" lon="0.45295246468941763"><ele>589.0</ele><time>2026-04-01T13:37:04Z</time></trkpt><trkpt lat="43.108325980872344" lon="0.45329172657083516"><ele>588.0</ele><time>2026-04-01T13:37:05Z</time></trkpt><trkpt lat="43.10835268214886" lon="0.4536172211414306"><ele>587.0</ele><time>2026-04-01T13:37:06Z</time></trkpt><trkpt lat="43.108374286530264" lon="0.45393127584952947"><ele>587.0</ele><time>2026-04-01T13:37:07Z</time></trkpt><trkpt lat="43.10839384244978" lon="0.4542383996391927"><ele>587.0</ele><time>2026-04-01T13:37:08Z</time></trkpt><trkpt lat="43.108412183948026" lon="0.4545460838137651"><ele>587.0</ele><time>2026-04-01T13:37:09Z</time></trkpt><trkpt lat="43.108428496832836" lon="0.45485506728832104"><ele>587.0</ele><time>2026-04-01T13:37:10Z</time></trkpt><trkpt lat="43.108441520219614" lon="0.4551614528181551"><ele>586.6666666666666</ele><time>2026-04-01T13:37:11Z</time></trkpt><trkpt lat="43.10845024127342" lon="0.4554644517794044"><ele>586.3333333333334</ele><time>2026-04-01T13:37:12Z</time></trkpt><trkpt lat="43.10845558012253" lon="0.4557684987862001"><ele>586.0</ele><time>2026-04-01T13:37:13Z</time></trkpt><trkpt lat="43.10845793139281" lon="0.45607251023302214"><ele>585.6666666666667</ele><time>2026-04-01T13:37:14Z</time></trkpt><trkpt lat="43.10845759526082" lon="0.45637701696025734"><ele>585.3333333333334</ele><time>2026-04-01T13:37:15Z</time></trkpt><trkpt lat="43.108454838418766" lon="0.45668064715929685"><ele>585.0</ele><time>2026-04-01T13:37:16Z</time></trkpt><trkpt lat="43.10844822501849" lon="0.4569873205688195"><ele>584.5</ele><time>2026-04-01T13:37:17Z</time></trkpt><trkpt lat="43.10843548944472" lon="0.4573053862126276"><ele>584.0</ele><time>2026-04-01T13:37:18Z</time></trkpt><trkpt lat="43.10841987330526" lon="0.45762969891030897"><ele>584.0</ele><time>2026-04-01T13:37:19Z</time></trkpt><trkpt lat="43.108402804444324" lon="0.45794761867374195"><ele>584.0</ele><time>2026-04-01T13:37:20Z</time></trkpt><trkpt lat="43.10838285393699" lon="0.45826378936895135"><ele>584.5</ele><time>2026-04-01T13:37:21Z</time></trkpt><trkpt lat="43.10835828193535" lon="0.45858130059168883"><ele>585.0</ele><time>2026-04-01T13:37:22Z</time></trkpt><trkpt lat="43.108327918609966" lon="0.4588975373785646"><ele>583.5</ele><time>2026-04-01T13:37:23Z</time></trkpt><trkpt lat="43.108294787083665" lon="0.45921209559245846"><ele>582.0</ele><time>2026-04-01T13:37:24Z</time></trkpt><trkpt lat="43.108258109671084" lon="0.4595253505236562"><ele>582.0</ele><time>2026-04-01T13:37:25Z</time></trkpt><trkpt lat="43.108218875550094" lon="0.45984116347100124"><ele>582.0</ele><time>2026-04-01T13:37:26Z</time></trkpt><trkpt lat="43.10817986501933" lon="0.4601520682720421"><ele>582.0</ele><time>2026-04-01T13:37:27Z</time></trkpt><trkpt lat="43.108135824021524" lon="0.4604421703958363"><ele>582.0</ele><time>2026-04-01T13:37:28Z</time></trkpt><trkpt lat="43.10809282890371" lon="0.4607309864681309"><ele>582.0</ele><time>2026-04-01T13:37:29Z</time></trkpt><trkpt lat="43.10804608745311" lon="0.46102300758587933"><ele>581.0</ele><time>2026-04-01T13:37:30Z</time></trkpt><trkpt lat="43.1079953680418" lon="0.46131499409023086"><ele>580.0</ele><time>2026-04-01T13:37:31Z</time></trkpt><trkpt lat="43.10793955352061" lon="0.4616068972640141"><ele>579.0</ele><time>2026-04-01T13:37:32Z</time></trkpt><trkpt lat="43.10788115846535" lon="0.46190399444837316"><ele>579.0</ele><time>2026-04-01T13:37:33Z</time></trkpt><trkpt lat="43.10782054102788" lon="0.4622055583245544"><ele>579.0</ele><time>2026-04-01T13:37:34Z</time></trkpt><trkpt lat="43.10775118326896" lon="0.46251225566313225"><ele>579.0</ele><time>2026-04-01T13:37:35Z</time></trkpt><trkpt lat="43.107682160593875" lon="0.4628137740188277"><ele>579.0</ele><time>2026-04-01T13:37:36Z</time></trkpt><trkpt lat="43.10761156821305" lon="0.46311086531241025"><ele>578.5</ele><time>2026-04-01T13:37:37Z</time></trkpt><trkpt lat="43.10753753865023" lon="0.4634067863392615"><ele>578.0</ele><time>2026-04-01T13:37:38Z</time></trkpt><trkpt lat="43.107461439728006" lon="0.46369922402490427"><ele>578.3333333333333</ele><time>2026-04-01T13:37:39Z</time></trkpt><trkpt lat="43.10738270400842" lon="0.4639843548288644"><ele>578.6666666666666</ele><time>2026-04-01T13:37:40Z</time></trkpt><trkpt lat="43.107301455992605" lon="0.4642701544199886"><ele>579.0</ele><time>2026-04-01T13:37:41Z</time></trkpt><trkpt lat="43.107216968147384" lon="0.46455769042192024"><ele>581.0</ele><time>2026-04-01T13:37:42Z</time></trkpt><trkpt lat="43.107128845679384" lon="0.4648444192452592"><ele>583.0</ele><time>2026-04-01T13:37:43Z</time></trkpt><trkpt lat="43.107035945716206" lon="0.46513170625332434"><ele>583.0</ele><time>2026-04-01T13:37:44Z</time></trkpt><trkpt lat="43.106940641337765" lon="0.46541879124281565"><ele>583.0</ele><time>2026-04-01T13:37:45Z</time></trkpt><trkpt lat="43.10684398246083" lon="0.4657053930106468"><ele>582.0</ele><time>2026-04-01T13:37:46Z</time></trkpt><trkpt lat="43.106746188441896" lon="0.465989517816918"><ele>581.0</ele><time>2026-04-01T13:37:47Z</time></trkpt><trkpt lat="43.10664594758967" lon="0.46627263907113387"><ele>583.0</ele><time>2026-04-01T13:37:48Z</time></trkpt><trkpt lat="43.1065469968393" lon="0.46655134502580864"><ele>585.0</ele><time>2026-04-01T13:37:49Z</time></trkpt><trkpt lat="43.1064469256602" lon="0.46682762217366314"><ele>585.0</ele><time>2026-04-01T13:37:50Z</time></trkpt><trkpt lat="43.106347733449894" lon="0.4671043244125706"><ele>585.0</ele><time>2026-04-01T13:37:51Z</time></trkpt><trkpt lat="43.10624774923611" lon="0.46737787571114975"><ele>585.0</ele><time>2026-04-01T13:37:52Z</time></trkpt><trkpt lat="43.1061469761991" lon="0.46765034530675265"><ele>583.0</ele><time>2026-04-01T13:37:53Z</time></trkpt><trkpt lat="43.106047363647804" lon="0.4679225959909303"><ele>581.0</ele><time>2026-04-01T13:37:54Z</time></trkpt><trkpt lat="43.10594889939944" lon="0.46819097778974683"><ele>579.0</ele><time>2026-04-01T13:37:55Z</time></trkpt><trkpt lat="43.10585415375779" lon="0.4684491357207309"><ele>579.3333333333334</ele><time>2026-04-01T13:37:56Z</time></trkpt><trkpt lat="43.10576445383002" lon="0.46869900726198277"><ele>579.6666666666667</ele><time>2026-04-01T13:37:57Z</time></trkpt><trkpt lat="43.10567656162493" lon="0.46894654204891495"><ele>580.0</ele><time>2026-04-01T13:37:58Z</time></trkpt><trkpt lat="43.10558908036474" lon="0.4691965087356806"><ele>580.0</ele><time>2026-04-01T13:37:59Z</time></trkpt><trkpt lat="43.1054997447672" lon="0.4694503741890855"><ele>580.0</ele><time>2026-04-01T13:38:00Z</time></trkpt><trkpt lat="43.105405774692606" lon="0.4697212317162914"><ele>580.0</ele><time>2026-04-01T13:38:01Z</time></trkpt><trkpt lat="43.10530701708841" lon="0.47000957467159915"><ele>579.0</ele><time>2026-04-01T13:38:02Z</time></trkpt><trkpt lat="43.105207742001895" lon="0.4702998065831972"><ele>578.0</ele><time>2026-04-01T13:38:03Z</time></trkpt><trkpt lat="43.10510801383895" lon="0.47059598688346205"><ele>576.0</ele><time>2026-04-01T13:38:04Z</time></trkpt><trkpt lat="43.105007478976844" lon="0.4708972185013355"><ele>574.0</ele><time>2026-04-01T13:38:05Z</time></trkpt><trkpt lat="43.10490662523399" lon="0.47120382430119667"><ele>573.0</ele><time>2026-04-01T13:38:06Z</time></trkpt><trkpt lat="43.104804212633795" lon="0.4715108093124053"><ele>572.0</ele><time>2026-04-01T13:38:07Z</time></trkpt><trkpt lat="43.10470246167986" lon="0.4718195536084622"><ele>569.5</ele><time>2026-04-01T13:38:08Z</time></trkpt><trkpt lat="43.10460079748969" lon="0.47213056705072626"><ele>567.0</ele><time>2026-04-01T13:38:09Z</time></trkpt><trkpt lat="43.10449693263996" lon="0.4724466860685098"><ele>567.0</ele><time>2026-04-01T13:38:10Z</time></trkpt><trkpt lat="43.104395444256326" lon="0.47276049166885176"><ele>567.0</ele><time>2026-04-01T13:38:11Z</time></trkpt><trkpt lat="43.10429596633221" lon="0.4730774327483083"><ele>566.5</ele><time>2026-04-01T13:38:12Z</time></trkpt><trkpt lat="43.10419965016328" lon="0.47339352474556295"><ele>566.0</ele><time>2026-04-01T13:38:13Z</time></trkpt><trkpt lat="43.10410237485502" lon="0.4737094689119648"><ele>566.5</ele><time>2026-04-01T13:38:14Z</time></trkpt><trkpt lat="43.104005032905135" lon="0.474020352655548"><ele>567.0</ele><time>2026-04-01T13:38:15Z</time></trkpt><trkpt lat="43.10391042918703" lon="0.47433604555250225"><ele>565.5</ele><time>2026-04-01T13:38:16Z</time></trkpt><trkpt lat="43.10381905812818" lon="0.47463593386322184"><ele>564.0</ele><time>2026-04-01T13:38:17Z</time></trkpt><trkpt lat="43.10373303153714" lon="0.47492672907889777"><ele>564.0</ele><time>2026-04-01T13:38:18Z</time></trkpt><trkpt lat="43.10365139317424" lon="0.4752065480832162"><ele>564.0</ele><time>2026-04-01T13:38:19Z</time></trkpt><trkpt lat="43.10357356278653" lon="0.4754781971651466"><ele>564.0</ele><time>2026-04-01T13:38:20Z</time></trkpt><trkpt lat="43.1034944995109" lon="0.4757549304037871"><ele>564.0</ele><time>2026-04-01T13:38:21Z</time></trkpt><trkpt lat="43.10341357530346" lon="0.4760398493131514"><ele>564.0</ele><time>2026-04-01T13:38:22Z</time></trkpt><trkpt lat="43.10332934100215" lon="0.4763369324266149"><ele>563.0</ele><time>2026-04-01T13:38:23Z</time></trkpt><trkpt lat="43.10324417737757" lon="0.4766363849398831"><ele>562.0</ele><time>2026-04-01T13:38:24Z</time></trkpt><trkpt lat="43.10315969510392" lon="0.47694166285684114"><ele>562.0</ele><time>2026-04-01T13:38:25Z</time></trkpt><trkpt lat="43.10307568842961" lon="0.47724815083827504"><ele>562.0</ele><time>2026-04-01T13:38:26Z</time></trkpt><trkpt lat="43.102991870554014" lon="0.47755350538536473"><ele>562.0</ele><time>2026-04-01T13:38:27Z</time></trkpt><trkpt lat="43.1029067211338" lon="0.4778610481612389"><ele>562.0</ele><time>2026-04-01T13:38:28Z</time></trkpt><trkpt lat="43.10282278650515" lon="0.4781674931883906"><ele>563.5</ele><time>2026-04-01T13:38:29Z</time></trkpt><trkpt lat="43.102737424870035" lon="0.47847403023930946"><ele>565.0</ele><time>2026-04-01T13:38:30Z</time></trkpt><trkpt lat="43.10265419971341" lon="0.4787761275169981"><ele>565.5</ele><time>2026-04-01T13:38:31Z</time></trkpt><trkpt lat="43.10257289822748" lon="0.4790756874066127"><ele>566.0</ele><time>2026-04-01T13:38:32Z</time></trkpt><trkpt lat="43.102492611402184" lon="0.4793694556545592"><ele>564.0</ele><time>2026-04-01T13:38:33Z</time></trkpt><trkpt lat="43.10241319959594" lon="0.4796584625830791"><ele>562.0</ele><time>2026-04-01T13:38:34Z</time></trkpt><trkpt lat="43.10233488412328" lon="0.47994074448954543"><ele>560.0</ele><time>2026-04-01T13:38:35Z</time></trkpt><trkpt lat="43.1022564660455" lon="0.48022212282029714"><ele>560.0</ele><time>2026-04-01T13:38:36Z</time></trkpt><trkpt lat="43.102176920189294" lon="0.4805056735141716"><ele>560.0</ele><time>2026-04-01T13:38:37Z</time></trkpt><trkpt lat="43.10209843896177" lon="0.4807962075381262"><ele>560.0</ele><time>2026-04-01T13:38:38Z</time></trkpt><trkpt lat="43.10201799503498" lon="0.4810901632720654"><ele>561.0</ele><time>2026-04-01T13:38:39Z</time></trkpt><trkpt lat="43.101935930824" lon="0.48138584041217036"><ele>562.0</ele><time>2026-04-01T13:38:40Z</time></trkpt><trkpt lat="43.10185157249324" lon="0.48168126849528903"><ele>562.0</ele><time>2026-04-01T13:38:41Z</time></trkpt><trkpt lat="43.10176459327588" lon="0.4819762966696496"><ele>562.0</ele><time>2026-04-01T13:38:42Z</time></trkpt><trkpt lat="43.10167637186734" lon="0.48227657143189945"><ele>561.5</ele><time>2026-04-01T13:38:43Z</time></trkpt><trkpt lat="43.10159034946174" lon="0.482587163271071"><ele>561.0</ele><time>2026-04-01T13:38:44Z</time></trkpt><trkpt lat="43.10150427734388" lon="0.4829094923901261"><ele>561.0</ele><time>2026-04-01T13:38:45Z</time></trkpt><trkpt lat="43.101416079384784" lon="0.48323944051097967"><ele>561.0</ele><time>2026-04-01T13:38:46Z</time></trkpt><trkpt lat="43.1013277355591" lon="0.4835739171492695"><ele>561.0</ele><time>2026-04-01T13:38:47Z</time></trkpt><trkpt lat="43.10123810154596" lon="0.4839216261202918"><ele>561.0</ele><time>2026-04-01T13:38:48Z</time></trkpt><trkpt lat="43.1011476219604" lon="0.4842830509849006"><ele>559.5</ele><time>2026-04-01T13:38:49Z</time></trkpt><trkpt lat="43.10105234565607" lon="0.4846583763111963"><ele>558.0</ele><time>2026-04-01T13:38:50Z</time></trkpt><trkpt lat="43.10095239664068" lon="0.4850397067651455"><ele>558.0</ele><time>2026-04-01T13:38:51Z</time></trkpt><trkpt lat="43.10084885675728" lon="0.48541910857925674"><ele>558.0</ele><time>2026-04-01T13:38:52Z</time></trkpt><trkpt lat="43.100741778304" lon="0.485799524450024"><ele>559.0</ele><time>2026-04-01T13:38:53Z</time></trkpt><trkpt lat="43.10063624178257" lon="0.48617740711566904"><ele>560.0</ele><time>2026-04-01T13:38:54Z</time></trkpt><trkpt lat="43.10053192887535" lon="0.48655505549548833"><ele>560.0</ele><time>2026-04-01T13:38:55Z</time></trkpt><trkpt lat="43.100427015401316" lon="0.48692977807329435"><ele>560.0</ele><time>2026-04-01T13:38:56Z</time></trkpt><trkpt lat="43.100320960504476" lon="0.4873015898188536"><ele>560.0</ele><time>2026-04-01T13:38:57Z</time></trkpt><trkpt lat="43.10021374393313" lon="0.48766989060228105"><ele>560.0</ele><time>2026-04-01T13:38:58Z</time></trkpt><trkpt lat="43.10010793190405" lon="0.48803781688867337"><ele>560.0</ele><time>2026-04-01T13:38:59Z</time></trkpt><trkpt lat="43.100002561149864" lon="0.4883999764576966"><ele>560.0</ele><time>2026-04-01T13:39:00Z</time></trkpt><trkpt lat="43.09989353165236" lon="0.4887651434465727"><ele>564.0</ele><time>2026-04-01T13:39:01Z</time></trkpt><trkpt lat="43.09978200175123" lon="0.4891305747847698"><ele>568.0</ele><time>2026-04-01T13:39:02Z</time></trkpt><trkpt lat="43.099667477804296" lon="0.48949448672148493"><ele>567.0</ele><time>2026-04-01T13:39:03Z</time></trkpt><trkpt lat="43.09954932769841" lon="0.4898579903473594"><ele>566.0</ele><time>2026-04-01T13:39:04Z</time></trkpt><trkpt lat="43.09942805420819" lon="0.4902208466457148"><ele>566.0</ele><time>2026-04-01T13:39:05Z</time></trkpt><trkpt lat="43.09930507160869" lon="0.49058146510421546"><ele>566.0</ele><time>2026-04-01T13:39:06Z</time></trkpt><trkpt lat="43.099178273632404" lon="0.49093996917379173"><ele>566.5</ele><time>2026-04-01T13:39:07Z</time></trkpt><trkpt lat="43.09905056911053" lon="0.49129560836505215"><ele>567.0</ele><time>2026-04-01T13:39:08Z</time></trkpt><trkpt lat="43.09892088136145" lon="0.4916514518297506"><ele>567.0</ele><time>2026-04-01T13:39:09Z</time></trkpt><trkpt lat="43.09879135339684" lon="0.49200134310352306"><ele>567.0</ele><time>2026-04-01T13:39:10Z</time></trkpt><trkpt lat="43.0986596268844" lon="0.4923455373582781"><ele>566.5</ele><time>2026-04-01T13:39:11Z</time></trkpt><trkpt lat="43.09852510320082" lon="0.4926958627318586"><ele>566.0</ele><time>2026-04-01T13:39:12Z</time></trkpt><trkpt lat="43.09838464577997" lon="0.49305397900479386"><ele>566.0</ele><time>2026-04-01T13:39:13Z</time></trkpt><trkpt lat="43.0982359551086" lon="0.49341685733034873"><ele>566.0</ele><time>2026-04-01T13:39:14Z</time></trkpt><trkpt lat="43.098081028172516" lon="0.4937941964244417"><ele>565.0</ele><time>2026-04-01T13:39:15Z</time></trkpt><trkpt lat="43.09791502951433" lon="0.4941783273236303"><ele>564.0</ele><time>2026-04-01T13:39:16Z</time></trkpt><trkpt lat="43.09773303041745" lon="0.4945785933344669"><ele>564.0</ele><time>2026-04-01T13:39:17Z</time></trkpt><trkpt lat="43.09753779618094" lon="0.494985496254769"><ele>564.0</ele><time>2026-04-01T13:39:18Z</time></trkpt><trkpt lat="43.09734154699811" lon="0.4953841022974241"><ele>563.5</ele><time>2026-04-01T13:39:19Z</time></trkpt><trkpt lat="43.097196747566684" lon="0.4957577149835034"><ele>563.0</ele><time>2026-04-01T13:39:20Z</time></trkpt><trkpt lat="43.097006018980245" lon="0.496153409460015"><ele>563.0</ele><time>2026-04-01T13:39:21Z</time></trkpt><trkpt lat="43.096806260074096" lon="0.49656057437037665"><ele>563.0</ele><time>2026-04-01T13:39:22Z</time></trkpt><trkpt lat="43.096613640626245" lon="0.49694089292332827"><ele>563.0</ele><time>2026-04-01T13:39:23Z</time></trkpt><trkpt lat="43.09642442135984" lon="0.49730423631055315"><ele>563.0</ele><time>2026-04-01T13:39:24Z</time></trkpt><trkpt lat="43.096242817025065" lon="0.49765498940406955"><ele>562.5</ele><time>2026-04-01T13:39:25Z</time></trkpt><trkpt lat="43.096062494127736" lon="0.49800291352731985"><ele>562.0</ele><time>2026-04-01T13:39:26Z</time></trkpt><trkpt lat="43.09588450303768" lon="0.4983479435193001"><ele>562.0</ele><time>2026-04-01T13:39:27Z</time></trkpt><trkpt lat="43.095707234667564" lon="0.498696501956416"><ele>562.0</ele><time>2026-04-01T13:39:28Z</time></trkpt><trkpt lat="43.095526464415144" lon="0.4990496450816421"><ele>562.0</ele><time>2026-04-01T13:39:29Z</time></trkpt><trkpt lat="43.09534242018406" lon="0.4994069882694301"><ele>562.0</ele><time>2026-04-01T13:39:30Z</time></trkpt><trkpt lat="43.09515345360003" lon="0.4997648273203434"><ele>562.0</ele><time>2026-04-01T13:39:31Z</time></trkpt><trkpt lat="43.094961985645895" lon="0.5001241189294243"><ele>562.0</ele><time>2026-04-01T13:39:32Z</time></trkpt><trkpt lat="43.094769946529375" lon="0.5004859046928184"><ele>562.0</ele><time>2026-04-01T13:39:33Z</time></trkpt><trkpt lat="43.094574125768176" lon="0.5008641288996568"><ele>562.0</ele><time>2026-04-01T13:39:34Z</time></trkpt><trkpt lat="43.09437822837305" lon="0.5012583751994049"><ele>561.5</ele><time>2026-04-01T13:39:35Z</time></trkpt><trkpt lat="43.094186655847466" lon="0.5016566201763808"><ele>561.0</ele><time>2026-04-01T13:39:36Z</time></trkpt><trkpt lat="43.094004682113194" lon="0.5020502311085063"><ele>561.0</ele><time>2026-04-01T13:39:37Z</time></trkpt><trkpt lat="43.093830974808796" lon="0.5024399932821586"><ele>561.0</ele><time>2026-04-01T13:39:38Z</time></trkpt><trkpt lat="43.093660679246604" lon="0.5028353850674513"><ele>560.0</ele><time>2026-04-01T13:39:39Z</time></trkpt><trkpt lat="43.09350812155203" lon="0.50323365233257"><ele>559.0</ele><time>2026-04-01T13:39:40Z</time></trkpt><trkpt lat="43.093358686455844" lon="0.5036304837160499"><ele>563.5</ele><time>2026-04-01T13:39:41Z</time></trkpt><trkpt lat="43.09321927839669" lon="0.5040256228352054"><ele>568.0</ele><time>2026-04-01T13:39:42Z</time></trkpt><trkpt lat="43.09307783780513" lon="0.5044182342990672"><ele>567.5</ele><time>2026-04-01T13:39:43Z</time></trkpt><trkpt lat="43.092943994839196" lon="0.5048130011860047"><ele>567.0</ele><time>2026-04-01T13:39:44Z</time></trkpt><trkpt lat="43.09281889563872" lon="0.5052091527757876"><ele>565.5</ele><time>2026-04-01T13:39:45Z</time></trkpt><trkpt lat="43.0927046474042" lon="0.5056073111887467"><ele>564.0</ele><time>2026-04-01T13:39:46Z</time></trkpt><trkpt lat="43.09259438718538" lon="0.5060002093589725"><ele>563.5</ele><time>2026-04-01T13:39:47Z</time></trkpt><trkpt lat="43.092485547488245" lon="0.506391087935761"><ele>563.0</ele><time>2026-04-01T13:39:48Z</time></trkpt><trkpt lat="43.09237596124944" lon="0.5067691812905569"><ele>562.5</ele><time>2026-04-01T13:39:49Z</time></trkpt><trkpt lat="43.09227184097088" lon="0.5071474561897441"><ele>562.0</ele><time>2026-04-01T13:39:50Z</time></trkpt><trkpt lat="43.09217887901187" lon="0.5075302144169648"><ele>562.0</ele><time>2026-04-01T13:39:51Z</time></trkpt><trkpt lat="43.09209967555625" lon="0.5079156054810604"><ele>562.0</ele><time>2026-04-01T13:39:52Z</time></trkpt><trkpt lat="43.09202922293997" lon="0.5083009118553018"><ele>562.0</ele><time>2026-04-01T13:39:53Z</time></trkpt><trkpt lat="43.09196169556725" lon="0.508688594858236"><ele>562.0</ele><time>2026-04-01T13:39:54Z</time></trkpt><trkpt lat="43.09189936366416" lon="0.5090762936652553"><ele>561.0</ele><time>2026-04-01T13:39:55Z</time></trkpt><trkpt lat="43.09184281169667" lon="0.5094637162490674"><ele>560.0</ele><time>2026-04-01T13:39:56Z</time></trkpt><trkpt lat="43.09179120234695" lon="0.5098524948868707"><ele>560.0</ele><time>2026-04-01T13:39:57Z</time></trkpt><trkpt lat="43.091740898051725" lon="0.5102497547088816"><ele>560.0</ele><time>2026-04-01T13:39:58Z</time></trkpt><trkpt lat="43.09169400614234" lon="0.5106533749621288"><ele>560.0</ele><time>2026-04-01T13:39:59Z</time></trkpt><trkpt lat="43.091649425081144" lon="0.5110616155459662"><ele>560.0</ele><time>2026-04-01T13:40:00Z</time></trkpt><trkpt lat="43.091606008561676" lon="0.5114650816942964"><ele>555.5</ele><time>2026-04-01T13:40:01Z</time></trkpt><trkpt lat="43.09156439984069" lon="0.5118695467189457"><ele>551.0</ele><time>2026-04-01T13:40:02Z</time></trkpt><trkpt lat="43.091525767888484" lon="0.5122726132953144"><ele>551.0</ele><time>2026-04-01T13:40:03Z</time></trkpt><trkpt lat="43.09148829058645" lon="0.5126781488817359"><ele>551.0</ele><time>2026-04-01T13:40:04Z</time></trkpt><trkpt lat="43.09145182871094" lon="0.5130838360122955"><ele>551.0</ele><time>2026-04-01T13:40:05Z</time></trkpt><trkpt lat="43.09141631235239" lon="0.5134882951985394"><ele>551.0</ele><time>2026-04-01T13:40:06Z</time></trkpt><trkpt lat="43.0913824143607" lon="0.5138893165942179"><ele>552.5</ele><time>2026-04-01T13:40:07Z</time></trkpt><trkpt lat="43.09134757085714" lon="0.5142912384283065"><ele>554.0</ele><time>2026-04-01T13:40:08Z</time></trkpt><trkpt lat="43.0913108728414" lon="0.5146922048692034"><ele>554.0</ele><time>2026-04-01T13:40:09Z</time></trkpt><trkpt lat="43.09127216568886" lon="0.5151001257873048"><ele>554.0</ele><time>2026-04-01T13:40:10Z</time></trkpt><trkpt lat="43.091229321560945" lon="0.515513544511989"><ele>554.0</ele><time>2026-04-01T13:40:11Z</time></trkpt><trkpt lat="43.09118712271616" lon="0.5159318731779198"><ele>554.0</ele><time>2026-04-01T13:40:12Z</time></trkpt><trkpt lat="43.09114497163931" lon="0.5163490489862375"><ele>553.5</ele><time>2026-04-01T13:40:13Z</time></trkpt><trkpt lat="43.09110337685684" lon="0.5167673856159775"><ele>553.0</ele><time>2026-04-01T13:40:14Z</time></trkpt><trkpt lat="43.09106383750762" lon="0.5171851879361428"><ele>553.0</ele><time>2026-04-01T13:40:15Z</time></trkpt><trkpt lat="43.091025455401486" lon="0.5176042970622653"><ele>553.0</ele><time>2026-04-01T13:40:16Z</time></trkpt><trkpt lat="43.09098676063695" lon="0.518023161531539"><ele>552.0</ele><time>2026-04-01T13:40:17Z</time></trkpt><trkpt lat="43.09094890248769" lon="0.5184404907823644"><ele>551.0</ele><time>2026-04-01T13:40:18Z</time></trkpt><trkpt lat="43.090910802129876" lon="0.5188570533234169"><ele>551.0</ele><time>2026-04-01T13:40:19Z</time></trkpt><trkpt lat="43.09087272457211" lon="0.5192724204968124"><ele>551.0</ele><time>2026-04-01T13:40:20Z</time></trkpt><trkpt lat="43.09083774881866" lon="0.5196868575282965"><ele>551.5</ele><time>2026-04-01T13:40:21Z</time></trkpt><trkpt lat="43.09080791865563" lon="0.5200998830311733"><ele>552.0</ele><time>2026-04-01T13:40:22Z</time></trkpt><trkpt lat="43.090782041441635" lon="0.5205144373224875"><ele>550.5</ele><time>2026-04-01T13:40:23Z</time></trkpt><trkpt lat="43.09076109785051" lon="0.5209386185289203"><ele>549.0</ele><time>2026-04-01T13:40:24Z</time></trkpt><trkpt lat="43.090743093833446" lon="0.5213688646094751"><ele>547.5</ele><time>2026-04-01T13:40:25Z</time></trkpt><trkpt lat="43.09073060336499" lon="0.5217960532131918"><ele>546.0</ele><time>2026-04-01T13:40:26Z</time></trkpt><trkpt lat="43.09072263978485" lon="0.522222063187674"><ele>546.0</ele><time>2026-04-01T13:40:27Z</time></trkpt><trkpt lat="43.09072310965842" lon="0.5226481436871092"><ele>546.0</ele><time>2026-04-01T13:40:28Z</time></trkpt><trkpt lat="43.09073023556137" lon="0.5230757483017937"><ele>546.5</ele><time>2026-04-01T13:40:29Z</time></trkpt><trkpt lat="43.09074050338535" lon="0.5235031539786147"><ele>547.0</ele><time>2026-04-01T13:40:30Z</time></trkpt><trkpt lat="43.09075631271741" lon="0.523927774543722"><ele>545.0</ele><time>2026-04-01T13:40:31Z</time></trkpt><trkpt lat="43.0907810289178" lon="0.5243487754973672"><ele>543.0</ele><time>2026-04-01T13:40:32Z</time></trkpt><trkpt lat="43.09081320181815" lon="0.5247652072489001"><ele>543.0</ele><time>2026-04-01T13:40:33Z</time></trkpt><trkpt lat="43.09085010218409" lon="0.5251829130212851"><ele>543.0</ele><time>2026-04-01T13:40:34Z</time></trkpt><trkpt lat="43.09089177996334" lon="0.5256132473965246"><ele>542.5</ele><time>2026-04-01T13:40:35Z</time></trkpt><trkpt lat="43.090936165720976" lon="0.5260474945958236"><ele>542.0</ele><time>2026-04-01T13:40:36Z</time></trkpt><trkpt lat="43.090986248589864" lon="0.5264887541979818"><ele>542.0</ele><time>2026-04-01T13:40:37Z</time></trkpt><trkpt lat="43.091036420027095" lon="0.5269446278096181"><ele>542.0</ele><time>2026-04-01T13:40:38Z</time></trkpt><trkpt lat="43.091083861616724" lon="0.5274091177842675"><ele>542.0</ele><time>2026-04-01T13:40:39Z</time></trkpt><trkpt lat="43.09113361720053" lon="0.5278776195664197"><ele>542.0</ele><time>2026-04-01T13:40:40Z</time></trkpt><trkpt lat="43.09118393341357" lon="0.5283446851880786"><ele>543.5</ele><time>2026-04-01T13:40:41Z</time></trkpt><trkpt lat="43.09123697821774" lon="0.5288078906210835"><ele>545.0</ele><time>2026-04-01T13:40:42Z</time></trkpt><trkpt lat="43.09129004099888" lon="0.5292664836469645"><ele>543.5</ele><time>2026-04-01T13:40:43Z</time></trkpt><trkpt lat="43.091339298100124" lon="0.5297226245695569"><ele>542.0</ele><time>2026-04-01T13:40:44Z</time></trkpt><trkpt lat="43.09138603895984" lon="0.5301790561537"><ele>540.5</ele><time>2026-04-01T13:40:45Z</time></trkpt><trkpt lat="43.09143472743301" lon="0.5306316207805445"><ele>539.0</ele><time>2026-04-01T13:40:46Z</time></trkpt><trkpt lat="43.09149079101884" lon="0.5310816982442069"><ele>537.5</ele><time>2026-04-01T13:40:47Z</time></trkpt><trkpt lat="43.09153907508357" lon="0.5315350246935518"><ele>536.0</ele><time>2026-04-01T13:40:48Z</time></trkpt><trkpt lat="43.09158992563611" lon="0.5320033594622459"><ele>537.5</ele><time>2026-04-01T13:40:49Z</time></trkpt><trkpt lat="43.09164204902768" lon="0.5324784425782711"><ele>539.0</ele><time>2026-04-01T13:40:50Z</time></trkpt><trkpt lat="43.091697843899624" lon="0.5329659603499599"><ele>539.0</ele><time>2026-04-01T13:40:51Z</time></trkpt><trkpt lat="43.09175329666177" lon="0.5334617077952948"><ele>539.0</ele><time>2026-04-01T13:40:52Z</time></trkpt><trkpt lat="43.0918065457996" lon="0.5339578528716838"><ele>538.0</ele><time>2026-04-01T13:40:53Z</time></trkpt><trkpt lat="43.09186201984328" lon="0.5344533976546381"><ele>537.0</ele><time>2026-04-01T13:40:54Z</time></trkpt><trkpt lat="43.09191792163772" lon="0.5349481315760999"><ele>537.0</ele><time>2026-04-01T13:40:55Z</time></trkpt><trkpt lat="43.09197424575903" lon="0.5354472868602823"><ele>537.0</ele><time>2026-04-01T13:40:56Z</time></trkpt><trkpt lat="43.09202936728243" lon="0.5359516234584825"><ele>537.5</ele><time>2026-04-01T13:40:57Z</time></trkpt><trkpt lat="43.09208460337326" lon="0.5364713251453598"><ele>538.0</ele><time>2026-04-01T13:40:58Z</time></trkpt><trkpt lat="43.09214401072569" lon="0.5369979608240898"><ele>537.5</ele><time>2026-04-01T13:40:59Z</time></trkpt><trkpt lat="43.09220509922798" lon="0.5375294901914158"><ele>537.0</ele><time>2026-04-01T13:41:00Z</time></trkpt><trkpt lat="43.09227158722965" lon="0.5380680326243933"><ele>534.0</ele><time>2026-04-01T13:41:01Z</time></trkpt><trkpt lat="43.09233898753688" lon="0.5386092167660484"><ele>531.0</ele><time>2026-04-01T13:41:02Z</time></trkpt><trkpt lat="43.092405559853546" lon="0.5391013976423507"><ele>528.0</ele><time>2026-04-01T13:41:03Z</time></trkpt><trkpt lat="43.0924741321979" lon="0.5395782448674263"><ele>525.0</ele><time>2026-04-01T13:41:04Z</time></trkpt><trkpt lat="43.09254620441036" lon="0.5400482812489452"><ele>524.5</ele><time>2026-04-01T13:41:05Z</time></trkpt><trkpt lat="43.092626276449195" lon="0.5405320067391368"><ele>524.0</ele><time>2026-04-01T13:41:06Z</time></trkpt><trkpt lat="43.09270919025026" lon="0.541011632349137"><ele>524.5</ele><time>2026-04-01T13:41:07Z</time></trkpt><trkpt lat="43.09279479317069" lon="0.5414896066957476"><ele>525.0</ele><time>2026-04-01T13:41:08Z</time></trkpt><trkpt lat="43.092887108848856" lon="0.541976506537471"><ele>526.5</ele><time>2026-04-01T13:41:09Z</time></trkpt><trkpt lat="43.092988508299875" lon="0.5424754853215046"><ele>528.0</ele><time>2026-04-01T13:41:10Z</time></trkpt><trkpt lat="43.09309779267017" lon="0.5429797662782819"><ele>528.5</ele><time>2026-04-01T13:41:11Z</time></trkpt><trkpt lat="43.09320816769052" lon="0.5434696187406671"><ele>529.0</ele><time>2026-04-01T13:41:12Z</time></trkpt><trkpt lat="43.09332155419014" lon="0.5439484948191173"><ele>527.0</ele><time>2026-04-01T13:41:13Z</time></trkpt><trkpt lat="43.09343846399996" lon="0.5444160857582768"><ele>525.0</ele><time>2026-04-01T13:41:14Z</time></trkpt><trkpt lat="43.09356106147843" lon="0.5448851931297126"><ele>525.0</ele><time>2026-04-01T13:41:15Z</time></trkpt><trkpt lat="43.09368587266162" lon="0.5453489723933437"><ele>525.0</ele><time>2026-04-01T13:41:16Z</time></trkpt><trkpt lat="43.09381403379231" lon="0.5458120148203846"><ele>526.5</ele><time>2026-04-01T13:41:17Z</time></trkpt><trkpt lat="43.093944182074154" lon="0.5462691171245445"><ele>528.0</ele><time>2026-04-01T13:41:18Z</time></trkpt><trkpt lat="43.09407428408958" lon="0.5467154692791578"><ele>523.0</ele><time>2026-04-01T13:41:19Z</time></trkpt><trkpt lat="43.09420372813327" lon="0.5471640200880178"><ele>518.0</ele><time>2026-04-01T13:41:20Z</time></trkpt><trkpt lat="43.09433551811423" lon="0.5476161279214314"><ele>519.0</ele><time>2026-04-01T13:41:21Z</time></trkpt><trkpt lat="43.09446969366941" lon="0.5480728706596019"><ele>520.0</ele><time>2026-04-01T13:41:22Z</time></trkpt><trkpt lat="43.094606066391606" lon="0.5485318510081532"><ele>521.0</ele><time>2026-04-01T13:41:23Z</time></trkpt><trkpt lat="43.09474356398082" lon="0.5489964112224414"><ele>522.0</ele><time>2026-04-01T13:41:24Z</time></trkpt><trkpt lat="43.09487907895966" lon="0.5494568239184995"><ele>515.0</ele><time>2026-04-01T13:41:25Z</time></trkpt><trkpt lat="43.095013865120436" lon="0.5499178462104531"><ele>508.0</ele><time>2026-04-01T13:41:26Z</time></trkpt><trkpt lat="43.09514702649824" lon="0.5503735224246143"><ele>508.0</ele><time>2026-04-01T13:41:27Z</time></trkpt><trkpt lat="43.09527576803782" lon="0.5508199237420698"><ele>508.0</ele><time>2026-04-01T13:41:28Z</time></trkpt><trkpt lat="43.095400705645545" lon="0.551252059399428"><ele>509.5</ele><time>2026-04-01T13:41:29Z</time></trkpt><trkpt lat="43.09552500142932" lon="0.551668817397314"><ele>511.0</ele><time>2026-04-01T13:41:30Z</time></trkpt><trkpt lat="43.095647041500754" lon="0.5520816538779445"><ele>505.5</ele><time>2026-04-01T13:41:31Z</time></trkpt><trkpt lat="43.09576999021691" lon="0.5525044050671412"><ele>500.0</ele><time>2026-04-01T13:41:32Z</time></trkpt><trkpt lat="43.09589817293213" lon="0.5529345551746357"><ele>499.5</ele><time>2026-04-01T13:41:33Z</time></trkpt><trkpt lat="43.096027630822306" lon="0.5533724069471605"><ele>499.0</ele><time>2026-04-01T13:41:34Z</time></trkpt><trkpt lat="43.09614979478756" lon="0.5538055249550194"><ele>499.0</ele><time>2026-04-01T13:41:35Z</time></trkpt><trkpt lat="43.09627015752431" lon="0.554247848556776"><ele>499.0</ele><time>2026-04-01T13:41:36Z</time></trkpt><trkpt lat="43.0963838284326" lon="0.5546875373749535"><ele>494.0</ele><time>2026-04-01T13:41:37Z</time></trkpt><trkpt lat="43.09649050167479" lon="0.5551289354345474"><ele>489.0</ele><time>2026-04-01T13:41:38Z</time></trkpt><trkpt lat="43.09659117930132" lon="0.5555727906609054"><ele>485.5</ele><time>2026-04-01T13:41:39Z</time></trkpt><trkpt lat="43.09668609074021" lon="0.5560130780109427"><ele>482.0</ele><time>2026-04-01T13:41:40Z</time></trkpt><trkpt lat="43.09677270058729" lon="0.5564527535180629"><ele>481.0</ele><time>2026-04-01T13:41:41Z</time></trkpt><trkpt lat="43.096851921841576" lon="0.5568961945638023"><ele>480.0</ele><time>2026-04-01T13:41:42Z</time></trkpt><trkpt lat="43.096924249764456" lon="0.5573446246685145"><ele>479.0</ele><time>2026-04-01T13:41:43Z</time></trkpt><trkpt lat="43.09699018605705" lon="0.5577920984920005"><ele>478.0</ele><time>2026-04-01T13:41:44Z</time></trkpt><trkpt lat="43.09705258854716" lon="0.5582443059180818"><ele>476.0</ele><time>2026-04-01T13:41:45Z</time></trkpt><trkpt lat="43.09710388985057" lon="0.5586824230499481"><ele>474.0</ele><time>2026-04-01T13:41:46Z</time></trkpt><trkpt lat="43.09714913594795" lon="0.5591181972367404"><ele>471.5</ele><time>2026-04-01T13:41:47Z</time></trkpt><trkpt lat="43.09719365027585" lon="0.5595516373512879"><ele>469.0</ele><time>2026-04-01T13:41:48Z</time></trkpt><trkpt lat="43.097224600593314" lon="0.5599806613039365"><ele>468.0</ele><time>2026-04-01T13:41:49Z</time></trkpt><trkpt lat="43.09724995029178" lon="0.56041211945959"><ele>467.0</ele><time>2026-04-01T13:41:50Z</time></trkpt><trkpt lat="43.097264191111414" lon="0.5608554328654494"><ele>467.0</ele><time>2026-04-01T13:41:51Z</time></trkpt><trkpt lat="43.0972771777991" lon="0.5612934259131793"><ele>467.0</ele><time>2026-04-01T13:41:52Z</time></trkpt><trkpt lat="43.097286739324566" lon="0.5617161561504059"><ele>466.0</ele><time>2026-04-01T13:41:53Z</time></trkpt><trkpt lat="43.09728677576806" lon="0.562143114268273"><ele>465.0</ele><time>2026-04-01T13:41:54Z</time></trkpt><trkpt lat="43.097283014129744" lon="0.5625677331039637"><ele>464.0</ele><time>2026-04-01T13:41:55Z</time></trkpt><trkpt lat="43.097272147124905" lon="0.562984633607578"><ele>463.0</ele><time>2026-04-01T13:41:56Z</time></trkpt><trkpt lat="43.097254458079675" lon="0.5634027157724629"><ele>463.0</ele><time>2026-04-01T13:41:57Z</time></trkpt><trkpt lat="43.097232537388095" lon="0.5638191471329815"><ele>463.0</ele><time>2026-04-01T13:41:58Z</time></trkpt><trkpt lat="43.097205376856294" lon="0.5642360544668975"><ele>463.5</ele><time>2026-04-01T13:41:59Z</time></trkpt><trkpt lat="43.09717383585568" lon="0.5646567315619168"><ele>464.0</ele><time>2026-04-01T13:42:00Z</time></trkpt><trkpt lat="43.09713719234193" lon="0.5650672255087197"><ele>463.0</ele><time>2026-04-01T13:42:01Z</time></trkpt><trkpt lat="43.0970949929911" lon="0.5654784604220445"><ele>462.0</ele><time>2026-04-01T13:42:02Z</time></trkpt><trkpt lat="43.09704886679574" lon="0.5658871956405435"><ele>461.5</ele><time>2026-04-01T13:42:03Z</time></trkpt><trkpt lat="43.097000736985635" lon="0.5662906567213972"><ele>461.0</ele><time>2026-04-01T13:42:04Z</time></trkpt><trkpt lat="43.09694714547733" lon="0.5667051301098603"><ele>462.0</ele><time>2026-04-01T13:42:05Z</time></trkpt><trkpt lat="43.096892585062335" lon="0.567129026224382"><ele>463.0</ele><time>2026-04-01T13:42:06Z</time></trkpt><trkpt lat="43.09683864603415" lon="0.5675566104035942"><ele>463.5</ele><time>2026-04-01T13:42:07Z</time></trkpt><trkpt lat="43.09678698900083" lon="0.5680001294414389"><ele>464.0</ele><time>2026-04-01T13:42:08Z</time></trkpt><trkpt lat="43.09674330433235" lon="0.5684465851488272"><ele>463.5</ele><time>2026-04-01T13:42:09Z</time></trkpt><trkpt lat="43.09671204926895" lon="0.5688912955360341"><ele>463.0</ele><time>2026-04-01T13:42:10Z</time></trkpt><trkpt lat="43.09669091807427" lon="0.5693390605228135"><ele>463.0</ele><time>2026-04-01T13:42:11Z</time></trkpt><trkpt lat="43.09667676729831" lon="0.5697849239656383"><ele>463.0</ele><time>2026-04-01T13:42:12Z</time></trkpt><trkpt lat="43.09666989593146" lon="0.5702345142456224"><ele>463.5</ele><time>2026-04-01T13:42:13Z</time></trkpt><trkpt lat="43.09667436566817" lon="0.5706791074073903"><ele>464.0</ele><time>2026-04-01T13:42:14Z</time></trkpt><trkpt lat="43.09669787301171" lon="0.5711294189987154"><ele>463.0</ele><time>2026-04-01T13:42:15Z</time></trkpt><trkpt lat="43.096724587658166" lon="0.5715765404057033"><ele>462.0</ele><time>2026-04-01T13:42:16Z</time></trkpt><trkpt lat="43.096758552801404" lon="0.5720239420801223"><ele>460.0</ele><time>2026-04-01T13:42:17Z</time></trkpt><trkpt lat="43.096799296888605" lon="0.5724674219219051"><ele>458.0</ele><time>2026-04-01T13:42:18Z</time></trkpt><trkpt lat="43.096856445509445" lon="0.5729079464959523"><ele>458.0</ele><time>2026-04-01T13:42:19Z</time></trkpt><trkpt lat="43.09693310704119" lon="0.5733457735766408"><ele>458.0</ele><time>2026-04-01T13:42:20Z</time></trkpt><trkpt lat="43.09701955520229" lon="0.5737775405855763"><ele>457.5</ele><time>2026-04-01T13:42:21Z</time></trkpt><trkpt lat="43.097102840517174" lon="0.57421471875701"><ele>457.0</ele><time>2026-04-01T13:42:22Z</time></trkpt><trkpt lat="43.09718330239561" lon="0.5746525925740097"><ele>457.0</ele><time>2026-04-01T13:42:23Z</time></trkpt><trkpt lat="43.09726327221247" lon="0.575082722838719"><ele>457.0</ele><time>2026-04-01T13:42:24Z</time></trkpt><trkpt lat="43.097357461759124" lon="0.5754950826479401"><ele>456.5</ele><time>2026-04-01T13:42:25Z</time></trkpt><trkpt lat="43.097466651603085" lon="0.5758940946425434"><ele>456.0</ele><time>2026-04-01T13:42:26Z</time></trkpt><trkpt lat="43.097583243406675" lon="0.5762810069431852"><ele>456.0</ele><time>2026-04-01T13:42:27Z</time></trkpt><trkpt lat="43.0977025327191" lon="0.5766641177498165"><ele>456.0</ele><time>2026-04-01T13:42:28Z</time></trkpt><trkpt lat="43.09783129902783" lon="0.5770465584371636"><ele>457.0</ele><time>2026-04-01T13:42:29Z</time></trkpt><trkpt lat="43.0979695586536" lon="0.5774282844373178"><ele>458.0</ele><time>2026-04-01T13:42:30Z</time></trkpt><trkpt lat="43.09811628697874" lon="0.5778088184097668"><ele>457.0</ele><time>2026-04-01T13:42:31Z</time></trkpt><trkpt lat="43.09826985707372" lon="0.5781844766477217"><ele>456.0</ele><time>2026-04-01T13:42:32Z</time></trkpt><trkpt lat="43.09843411622328" lon="0.5785576218992682"><ele>457.0</ele><time>2026-04-01T13:42:33Z</time></trkpt><trkpt lat="43.098611655533475" lon="0.5789331428708281"><ele>458.0</ele><time>2026-04-01T13:42:34Z</time></trkpt><trkpt lat="43.0987915058529" lon="0.5793025605077358"><ele>458.5</ele><time>2026-04-01T13:42:35Z</time></trkpt><trkpt lat="43.098969675950315" lon="0.579667918920037"><ele>459.0</ele><time>2026-04-01T13:42:36Z</time></trkpt><trkpt lat="43.099139858022234" lon="0.5800335720326613"><ele>457.0</ele><time>2026-04-01T13:42:37Z</time></trkpt><trkpt lat="43.09930731315681" lon="0.580407030807025"><ele>455.0</ele><time>2026-04-01T13:42:38Z</time></trkpt><trkpt lat="43.09947668694253" lon="0.5807663836239347"><ele>455.0</ele><time>2026-04-01T13:42:39Z</time></trkpt><trkpt lat="43.09965407527958" lon="0.5811136176732685"><ele>455.0</ele><time>2026-04-01T13:42:40Z</time></trkpt><trkpt lat="43.09983201990592" lon="0.5814597761667676"><ele>455.5</ele><time>2026-04-01T13:42:41Z</time></trkpt><trkpt lat="43.1000035431139" lon="0.581808671046841"><ele>456.0</ele><time>2026-04-01T13:42:42Z</time></trkpt><trkpt lat="43.10017080194372" lon="0.5821620380797556"><ele>456.0</ele><time>2026-04-01T13:42:43Z</time></trkpt><trkpt lat="43.100333292284674" lon="0.582517939512943"><ele>456.0</ele><time>2026-04-01T13:42:44Z</time></trkpt><trkpt lat="43.10049021335815" lon="0.5828801501756014"><ele>457.0</ele><time>2026-04-01T13:42:45Z</time></trkpt><trkpt lat="43.100646133495076" lon="0.5832539575152309"><ele>458.0</ele><time>2026-04-01T13:42:46Z</time></trkpt><trkpt lat="43.10079961403568" lon="0.5836364481298293"><ele>457.0</ele><time>2026-04-01T13:42:47Z</time></trkpt><trkpt lat="43.100950625299774" lon="0.5840364296743699"><ele>456.0</ele><time>2026-04-01T13:42:48Z</time></trkpt><trkpt lat="43.101095821736294" lon="0.5844445813496341"><ele>457.0</ele><time>2026-04-01T13:42:49Z</time></trkpt><trkpt lat="43.1012297802112" lon="0.5848486441256829"><ele>458.0</ele><time>2026-04-01T13:42:50Z</time></trkpt><trkpt lat="43.10135902716922" lon="0.5852529428861044"><ele>458.0</ele><time>2026-04-01T13:42:51Z</time></trkpt><trkpt lat="43.1014822077633" lon="0.5856543204541794"><ele>458.0</ele><time>2026-04-01T13:42:52Z</time></trkpt><trkpt lat="43.10159948775273" lon="0.5860629402355096"><ele>452.5</ele><time>2026-04-01T13:42:53Z</time></trkpt><trkpt lat="43.10170753703685" lon="0.5864717152597357"><ele>447.0</ele><time>2026-04-01T13:42:54Z</time></trkpt><trkpt lat="43.101810316955394" lon="0.586884639489265"><ele>448.0</ele><time>2026-04-01T13:42:55Z</time></trkpt><trkpt lat="43.101912514180164" lon="0.587287393758651"><ele>449.0</ele><time>2026-04-01T13:42:56Z</time></trkpt><trkpt lat="43.102010322847924" lon="0.5876941284672555"><ele>449.0</ele><time>2026-04-01T13:42:57Z</time></trkpt><trkpt lat="43.102105959607364" lon="0.5880994958237401"><ele>449.0</ele><time>2026-04-01T13:42:58Z</time></trkpt><trkpt lat="43.10220186091796" lon="0.5885052640255456"><ele>445.5</ele><time>2026-04-01T13:42:59Z</time></trkpt><trkpt lat="43.10229801776381" lon="0.5889112251027426"><ele>442.0</ele><time>2026-04-01T13:43:00Z</time></trkpt><trkpt lat="43.10238971857778" lon="0.5893154769926279"><ele>437.5</ele><time>2026-04-01T13:43:01Z</time></trkpt><trkpt lat="43.10248137689818" lon="0.5897170104125021"><ele>433.0</ele><time>2026-04-01T13:43:02Z</time></trkpt><trkpt lat="43.102568179825774" lon="0.5901197887902248"><ele>430.0</ele><time>2026-04-01T13:43:03Z</time></trkpt><trkpt lat="43.102653948946546" lon="0.5904888065765385"><ele>427.0</ele><time>2026-04-01T13:43:04Z</time></trkpt><trkpt lat="43.10272669824856" lon="0.5908345114128596"><ele>427.0</ele><time>2026-04-01T13:43:05Z</time></trkpt><trkpt lat="43.102788588216036" lon="0.5911441842392654"><ele>427.0</ele><time>2026-04-01T13:43:06Z</time></trkpt><trkpt lat="43.102845279457455" lon="0.591425328628755"><ele>427.0</ele><time>2026-04-01T13:43:07Z</time></trkpt><trkpt lat="43.10289770516778" lon="0.5916888785716194"><ele>425.6666666666667</ele><time>2026-04-01T13:43:08Z</time></trkpt><trkpt lat="43.10294298631368" lon="0.5919260109001153"><ele>424.33333333333337</ele><time>2026-04-01T13:43:09Z</time></trkpt><trkpt lat="43.102982294992856" lon="0.5921390176598369"><ele>423.0</ele><time>2026-04-01T13:43:10Z</time></trkpt><trkpt lat="43.10301711600587" lon="0.5923655016455168"><ele>422.66666666666663</ele><time>2026-04-01T13:43:11Z</time></trkpt><trkpt lat="43.10303352513776" lon="0.5926163805240444"><ele>422.3333333333333</ele><time>2026-04-01T13:43:12Z</time></trkpt><trkpt lat="43.10302492328615" lon="0.5928867571716285"><ele>422.0</ele><time>2026-04-01T13:43:13Z</time></trkpt><trkpt lat="43.102991047173695" lon="0.5931614480305268"><ele>420.5</ele><time>2026-04-01T13:43:14Z</time></trkpt><trkpt lat="43.10293484655336" lon="0.5934342564117292"><ele>419.0</ele><time>2026-04-01T13:43:15Z</time></trkpt><trkpt lat="43.10330287109618" lon="0.5934991386349927"><ele>417.0</ele><time>2026-04-01T13:43:16Z</time></trkpt><trkpt lat="43.103325719345115" lon="0.5936895054078458"><ele>415.0</ele><time>2026-04-01T13:43:17Z</time></trkpt><trkpt lat="43.10259828268549" lon="0.5941845768566745"><ele>415.0</ele><time>2026-04-01T13:43:18Z</time></trkpt><trkpt lat="43.10244053903224" lon="0.5943951702317013"><ele>415.0</ele><time>2026-04-01T13:43:19Z</time></trkpt><trkpt lat="43.102258229368324" lon="0.5945776835169349"><ele>415.0</ele><time>2026-04-01T13:43:20Z</time></trkpt><trkpt lat="43.102059718161314" lon="0.5947252543875025"><ele>414.0</ele><time>2026-04-01T13:43:21Z</time></trkpt><trkpt lat="43.10185051626803" lon="0.5948424926263448"><ele>413.0</ele><time>2026-04-01T13:43:22Z</time></trkpt><trkpt lat="43.10164354328288" lon="0.594914890295355"><ele>412.0</ele><time>2026-04-01T13:43:23Z</time></trkpt><trkpt lat="43.10145081671762" lon="0.594954535533374"><ele>412.0</ele><time>2026-04-01T13:43:24Z</time></trkpt><trkpt lat="43.10127115791128" lon="0.5949847753407113"><ele>412.0</ele><time>2026-04-01T13:43:25Z</time></trkpt><trkpt lat="43.101101794044524" lon="0.5950196148455454"><ele>412.0</ele><time>2026-04-01T13:43:26Z</time></trkpt><trkpt lat="43.1009383743159" lon="0.5950605245056957"><ele>412.0</ele><time>2026-04-01T13:43:27Z</time></trkpt><trkpt lat="43.10078357268522" lon="0.5951024310357196"><ele>412.0</ele><time>2026-04-01T13:43:28Z</time></trkpt><trkpt lat="43.10063574700025" lon="0.5951430356723091"><ele>412.0</ele><time>2026-04-01T13:43:29Z</time></trkpt><trkpt lat="43.10050494765614" lon="0.5951789427708494"><ele>412.0</ele><time>2026-04-01T13:43:30Z</time></trkpt><trkpt lat="43.10039120075024" lon="0.5952120135490867"><ele>412.40000000000003</ele><time>2026-04-01T13:43:31Z</time></trkpt><trkpt lat="43.10030161590132" lon="0.5952374058461987"><ele>412.8</ele><time>2026-04-01T13:43:32Z</time></trkpt><trkpt lat="43.10022321552762" lon="0.5952606572234508"><ele>413.2</ele><time>2026-04-01T13:43:33Z</time></trkpt><trkpt lat="43.10010999457055" lon="0.5952946957352717"><ele>413.6</ele><time>2026-04-01T13:43:35Z</time></trkpt><trkpt lat="43.10001320004649" lon="0.5953095384686354"><ele>414.0</ele><time>2026-04-01T13:44:01Z</time></trkpt><trkpt lat="43.0999407714952" lon="0.5953133440576213"><ele>414.0</ele><time>2026-04-01T13:44:03Z</time></trkpt><trkpt lat="43.09984940842487" lon="0.5953204124492799"><ele>414.0</ele><time>2026-04-01T13:45:24Z</time></trkpt><trkpt lat="43.099784970706246" lon="0.595340059708871"><ele>414.0</ele><time>2026-04-01T13:45:25Z</time></trkpt><trkpt lat="43.09969131055609" lon="0.5953759713717816"><ele>414.0</ele><time>2026-04-01T13:45:26Z</time></trkpt><trkpt lat="43.099598951031034" lon="0.5954188947162679"><ele>414.0</ele><time>2026-04-01T13:45:27Z</time></trkpt><trkpt lat="43.09948639564801" lon="0.5954710179554525"><ele>414.0</ele><time>2026-04-01T13:45:28Z</time></trkpt><trkpt lat="43.099363916503" lon="0.5955213757262816"><ele>414.0</ele><time>2026-04-01T13:45:29Z</time></trkpt><trkpt lat="43.09921592468726" lon="0.595572024818393"><ele>414.0</ele><time>2026-04-01T13:45:30Z</time></trkpt><trkpt lat="43.099059910517866" lon="0.5956177531168646"><ele>414.0</ele><time>2026-04-01T13:45:31Z</time></trkpt><trkpt lat="43.098886282011094" lon="0.5956663661177912"><ele>414.0</ele><time>2026-04-01T13:45:32Z</time></trkpt><trkpt lat="43.09870364043393" lon="0.5957139333386465"><ele>414.0</ele><time>2026-04-01T13:45:33Z</time></trkpt><trkpt lat="43.09852955527943" lon="0.5957574738101075"><ele>414.0</ele><time>2026-04-01T13:45:34Z</time></trkpt><trkpt lat="43.098357711844116" lon="0.5958038437616343"><ele>413.66666666666663</ele><time>2026-04-01T13:45:35Z</time></trkpt><trkpt lat="43.09819625030747" lon="0.5958449858491576"><ele>413.3333333333333</ele><time>2026-04-01T13:45:36Z</time></trkpt><trkpt lat="43.09802606265186" lon="0.5958887386158602"><ele>413.0</ele><time>2026-04-01T13:45:37Z</time></trkpt><trkpt lat="43.097833138121224" lon="0.5959378717438036"><ele>413.0</ele><time>2026-04-01T13:45:38Z</time></trkpt><trkpt lat="43.097632313204926" lon="0.5959907898449346"><ele>413.0</ele><time>2026-04-01T13:45:39Z</time></trkpt><trkpt lat="43.097424215302105" lon="0.5960467947360468"><ele>413.0</ele><time>2026-04-01T13:45:40Z</time></trkpt><trkpt lat="43.09722604754969" lon="0.5960981613818931"><ele>414.0</ele><time>2026-04-01T13:45:41Z</time></trkpt><trkpt lat="43.09704353692955" lon="0.5961423751537734"><ele>415.0</ele><time>2026-04-01T13:45:42Z</time></trkpt><trkpt lat="43.09687084401197" lon="0.596185221983978"><ele>416.0</ele><time>2026-04-01T13:45:43Z</time></trkpt><trkpt lat="43.096710436300576" lon="0.5962252214899422"><ele>415.25</ele><time>2026-04-01T13:45:44Z</time></trkpt><trkpt lat="43.09656027725807" lon="0.5962675483244279"><ele>414.5</ele><time>2026-04-01T13:45:45Z</time></trkpt><trkpt lat="43.09641872044999" lon="0.5963069883368576"><ele>413.75</ele><time>2026-04-01T13:45:46Z</time></trkpt><trkpt lat="43.09628768748448" lon="0.5963337025369061"><ele>413.0</ele><time>2026-04-01T13:45:47Z</time></trkpt><trkpt lat="43.096161795646864" lon="0.5963397226996286"><ele>413.0</ele><time>2026-04-01T13:45:48Z</time></trkpt><trkpt lat="43.09604109067332" lon="0.5963215106711074"><ele>413.0</ele><time>2026-04-01T13:45:49Z</time></trkpt><trkpt lat="43.09592042343049" lon="0.5962813195690292"><ele>413.0</ele><time>2026-04-01T13:45:50Z</time></trkpt><trkpt lat="43.09580383941991" lon="0.596221295053848"><ele>413.0</ele><time>2026-04-01T13:45:51Z</time></trkpt><trkpt lat="43.09570316728931" lon="0.5961161246837016"><ele>413.25</ele><time>2026-04-01T13:45:52Z</time></trkpt><trkpt lat="43.095633363320516" lon="0.595974883086793"><ele>413.5</ele><time>2026-04-01T13:45:53Z</time></trkpt><trkpt lat="43.0955977394193" lon="0.5958207463232038"><ele>413.75</ele><time>2026-04-01T13:45:54Z</time></trkpt><trkpt lat="43.09560645830535" lon="0.5956569738791946"><ele>414.0</ele><time>2026-04-01T13:45:55Z</time></trkpt><trkpt lat="43.095647876014105" lon="0.5955019902956705"><ele>414.0</ele><time>2026-04-01T13:45:56Z</time></trkpt><trkpt lat="43.09571545200141" lon="0.5953567791135282"><ele>414.0</ele><time>2026-04-01T13:45:57Z</time></trkpt><trkpt lat="43.09580989827438" lon="0.5952434734527048"><ele>414.0</ele><time>2026-04-01T13:45:58Z</time></trkpt><trkpt lat="43.095909366366776" lon="0.5951487908645315"><ele>414.0</ele><time>2026-04-01T13:45:59Z</time></trkpt><trkpt lat="43.09602671643983" lon="0.5951270281695652"><ele>414.25</ele><time>2026-04-01T13:46:00Z</time></trkpt><trkpt lat="43.096156962189305" lon="0.5951302590127614"><ele>414.5</ele><time>2026-04-01T13:46:01Z</time></trkpt><trkpt lat="43.09628542248718" lon="0.595212501863322"><ele>414.75</ele><time>2026-04-01T13:46:02Z</time></trkpt><trkpt lat="43.096382269157594" lon="0.5953506446822632"><ele>415.0</ele><time>2026-04-01T13:46:03Z</time></trkpt><trkpt lat="43.09646155890214" lon="0.5955040918575994"><ele>415.0</ele><time>2026-04-01T13:46:04Z</time></trkpt><trkpt lat="43.09653727136776" lon="0.5956668171423992"><ele>415.0</ele><time>2026-04-01T13:46:05Z</time></trkpt><trkpt lat="43.096595819362925" lon="0.5958640332353381"><ele>415.0</ele><time>2026-04-01T13:46:06Z</time></trkpt><trkpt lat="43.09667895320975" lon="0.5960575267745313"><ele>415.33333333333337</ele><time>2026-04-01T13:46:07Z</time></trkpt><trkpt lat="43.096710687134504" lon="0.5963007342545389"><ele>415.66666666666663</ele><time>2026-04-01T13:46:08Z</time></trkpt><trkpt lat="43.09676878929859" lon="0.5965345621370686"><ele>416.0</ele><time>2026-04-01T13:46:09Z</time></trkpt><trkpt lat="43.09682078353457" lon="0.596759413266087"><ele>416.0</ele><time>2026-04-01T13:46:10Z</time></trkpt><trkpt lat="43.09686595587797" lon="0.5969605405267833"><ele>416.0</ele><time>2026-04-01T13:46:11Z</time></trkpt><trkpt lat="43.09690476667653" lon="0.5971509066484706"><ele>416.0</ele><time>2026-04-01T13:46:12Z</time></trkpt><trkpt lat="43.09693326518715" lon="0.5973294266045601"><ele>416.0</ele><time>2026-04-01T13:46:13Z</time></trkpt><trkpt lat="43.09694879270734" lon="0.5975011095160169"><ele>415.75</ele><time>2026-04-01T13:46:14Z</time></trkpt><trkpt lat="43.096948924872045" lon="0.5976638700749667"><ele>415.5</ele><time>2026-04-01T13:46:15Z</time></trkpt><trkpt lat="43.096938727421076" lon="0.5978154477468707"><ele>415.25</ele><time>2026-04-01T13:46:16Z</time></trkpt><trkpt lat="43.096956903477995" lon="0.5979646670736349"><ele>415.0</ele><time>2026-04-01T13:46:17Z</time></trkpt><trkpt lat="43.0970194107054" lon="0.5981063208912333"><ele>415.0</ele><time>2026-04-01T13:46:18Z</time></trkpt><trkpt lat="43.09712081762" lon="0.598249011898999"><ele>415.0</ele><time>2026-04-01T13:46:19Z</time></trkpt><trkpt lat="43.09722522923528" lon="0.5984275866594737"><ele>415.0</ele><time>2026-04-01T13:46:20Z</time></trkpt><trkpt lat="43.09730982935871" lon="0.598648265082989"><ele>414.6666666666667</ele><time>2026-04-01T13:46:21Z</time></trkpt><trkpt lat="43.09742683222579" lon="0.598871250426198"><ele>414.33333333333337</ele><time>2026-04-01T13:46:22Z</time></trkpt><trkpt lat="43.097569756941716" lon="0.599067380314935"><ele>414.0</ele><time>2026-04-01T13:46:23Z</time></trkpt><trkpt lat="43.09772983500766" lon="0.599258240094658"><ele>414.0</ele><time>2026-04-01T13:46:24Z</time></trkpt><trkpt lat="43.09789523521415" lon="0.5994509287322937"><ele>414.0</ele><time>2026-04-01T13:46:25Z</time></trkpt><trkpt lat="43.098060960917635" lon="0.599652208072188"><ele>414.0</ele><time>2026-04-01T13:46:26Z</time></trkpt><trkpt lat="43.098225558960834" lon="0.5998664720002663"><ele>413.0</ele><time>2026-04-01T13:46:27Z</time></trkpt><trkpt lat="43.098385785938035" lon="0.6000830155448764"><ele>412.0</ele><time>2026-04-01T13:46:28Z</time></trkpt><trkpt lat="43.09853807503199" lon="0.6003152900051144"><ele>411.5</ele><time>2026-04-01T13:46:29Z</time></trkpt><trkpt lat="43.09868750594161" lon="0.6005558522701993"><ele>411.0</ele><time>2026-04-01T13:46:30Z</time></trkpt><trkpt lat="43.098837404505595" lon="0.6008007285773167"><ele>411.0</ele><time>2026-04-01T13:46:31Z</time></trkpt><trkpt lat="43.09898275827899" lon="0.6010571219638406"><ele>411.0</ele><time>2026-04-01T13:46:32Z</time></trkpt><trkpt lat="43.09912277534984" lon="0.6013235335651085"><ele>411.5</ele><time>2026-04-01T13:46:33Z</time></trkpt><trkpt lat="43.09926366810416" lon="0.6016091201525464"><ele>412.0</ele><time>2026-04-01T13:46:34Z</time></trkpt><trkpt lat="43.09940681106325" lon="0.6019154864907492"><ele>412.0</ele><time>2026-04-01T13:46:35Z</time></trkpt><trkpt lat="43.099550599878434" lon="0.602241180078489"><ele>412.0</ele><time>2026-04-01T13:46:36Z</time></trkpt><trkpt lat="43.09968535087426" lon="0.6025815414449102"><ele>411.5</ele><time>2026-04-01T13:46:37Z</time></trkpt><trkpt lat="43.0998100191409" lon="0.602939837244265"><ele>411.0</ele><time>2026-04-01T13:46:38Z</time></trkpt><trkpt lat="43.099935890246776" lon="0.6033093939824471"><ele>411.5</ele><time>2026-04-01T13:46:39Z</time></trkpt><trkpt lat="43.10006085128868" lon="0.6036680095382028"><ele>412.0</ele><time>2026-04-01T13:46:40Z</time></trkpt><trkpt lat="43.10017802198868" lon="0.6040047044520654"><ele>412.0</ele><time>2026-04-01T13:46:41Z</time></trkpt><trkpt lat="43.100286394265304" lon="0.6043193584652315"><ele>412.0</ele><time>2026-04-01T13:46:42Z</time></trkpt><trkpt lat="43.10039128661016" lon="0.6046164564339609"><ele>410.0</ele><time>2026-04-01T13:46:43Z</time></trkpt><trkpt lat="43.10049256476327" lon="0.6049057468957749"><ele>408.0</ele><time>2026-04-01T13:46:44Z</time></trkpt><trkpt lat="43.100595747519485" lon="0.6051923943787877"><ele>407.5</ele><time>2026-04-01T13:46:45Z</time></trkpt><trkpt lat="43.10069832220195" lon="0.6054807938453637"><ele>407.0</ele><time>2026-04-01T13:46:46Z</time></trkpt><trkpt lat="43.10079991877076" lon="0.6057698010695491"><ele>407.0</ele><time>2026-04-01T13:46:47Z</time></trkpt><trkpt lat="43.10090088402695" lon="0.6060551821317817"><ele>407.0</ele><time>2026-04-01T13:46:48Z</time></trkpt><trkpt lat="43.10100216237422" lon="0.6063410722863559"><ele>407.0</ele><time>2026-04-01T13:46:49Z</time></trkpt><trkpt lat="43.101103935777914" lon="0.6066275349014016"><ele>407.0</ele><time>2026-04-01T13:46:50Z</time></trkpt><trkpt lat="43.10120572793034" lon="0.6069171587206533"><ele>405.5</ele><time>2026-04-01T13:46:51Z</time></trkpt><trkpt lat="43.101310132537684" lon="0.6072111479083888"><ele>404.0</ele><time>2026-04-01T13:46:52Z</time></trkpt><trkpt lat="43.101417404108226" lon="0.607507835535429"><ele>404.0</ele><time>2026-04-01T13:46:53Z</time></trkpt><trkpt lat="43.10152429625097" lon="0.607802074217102"><ele>404.0</ele><time>2026-04-01T13:46:54Z</time></trkpt><trkpt lat="43.101631295183815" lon="0.608091505907057"><ele>404.0</ele><time>2026-04-01T13:46:55Z</time></trkpt><trkpt lat="43.10173935405313" lon="0.6083841250924746"><ele>404.0</ele><time>2026-04-01T13:46:56Z</time></trkpt><trkpt lat="43.10184661524583" lon="0.6086802713212085"><ele>404.0</ele><time>2026-04-01T13:46:57Z</time></trkpt><trkpt lat="43.101952417612644" lon="0.6089829112675043"><ele>404.0</ele><time>2026-04-01T13:46:58Z</time></trkpt><trkpt lat="43.102059462087404" lon="0.6092865108546217"><ele>403.5</ele><time>2026-04-01T13:46:59Z</time></trkpt><trkpt lat="43.10216935047658" lon="0.6095903180530017"><ele>403.0</ele><time>2026-04-01T13:47:00Z</time></trkpt><trkpt lat="43.10228067439833" lon="0.6098926162697184"><ele>403.0</ele><time>2026-04-01T13:47:01Z</time></trkpt><trkpt lat="43.1023876540714" lon="0.6101967616509185"><ele>403.0</ele><time>2026-04-01T13:47:02Z</time></trkpt><trkpt lat="43.102494184273915" lon="0.6105012534389788"><ele>403.0</ele><time>2026-04-01T13:47:03Z</time></trkpt><trkpt lat="43.10260202288113" lon="0.6108062391597441"><ele>403.0</ele><time>2026-04-01T13:47:04Z</time></trkpt><trkpt lat="43.10271003764904" lon="0.6111102913578449"><ele>403.0</ele><time>2026-04-01T13:47:05Z</time></trkpt><trkpt lat="43.10281928370418" lon="0.6114173983630213"><ele>403.0</ele><time>2026-04-01T13:47:06Z</time></trkpt><trkpt lat="43.10292908115864" lon="0.6117280144994712"><ele>402.0</ele><time>2026-04-01T13:47:07Z</time></trkpt><trkpt lat="43.10303628741075" lon="0.6120411082686654"><ele>401.0</ele><time>2026-04-01T13:47:08Z</time></trkpt><trkpt lat="43.10314508368557" lon="0.6123547583460329"><ele>401.0</ele><time>2026-04-01T13:47:09Z</time></trkpt><trkpt lat="43.10325846941643" lon="0.6126662527014766"><ele>401.0</ele><time>2026-04-01T13:47:10Z</time></trkpt><trkpt lat="43.103371830445255" lon="0.6129790586564581"><ele>401.0</ele><time>2026-04-01T13:47:11Z</time></trkpt><trkpt lat="43.10348585869859" lon="0.6132932756027047"><ele>401.0</ele><time>2026-04-01T13:47:12Z</time></trkpt><trkpt lat="43.103599635236236" lon="0.6136118476066414"><ele>400.5</ele><time>2026-04-01T13:47:13Z</time></trkpt><trkpt lat="43.10371445213807" lon="0.6139326332547556"><ele>400.0</ele><time>2026-04-01T13:47:14Z</time></trkpt><trkpt lat="43.10383093927641" lon="0.6142540833009253"><ele>401.0</ele><time>2026-04-01T13:47:15Z</time></trkpt><trkpt lat="43.10394832572803" lon="0.6145763683318981"><ele>402.0</ele><time>2026-04-01T13:47:16Z</time></trkpt><trkpt lat="43.104066546754865" lon="0.614900973952012"><ele>402.0</ele><time>2026-04-01T13:47:17Z</time></trkpt><trkpt lat="43.10418362916587" lon="0.6152277651189685"><ele>402.0</ele><time>2026-04-01T13:47:18Z</time></trkpt><trkpt lat="43.104297284419765" lon="0.6155526681961535"><ele>402.0</ele><time>2026-04-01T13:47:19Z</time></trkpt><trkpt lat="43.10441225537897" lon="0.6158787192034911"><ele>402.0</ele><time>2026-04-01T13:47:20Z</time></trkpt><trkpt lat="43.10452554546314" lon="0.6162020912392994"><ele>401.5</ele><time>2026-04-01T13:47:21Z</time></trkpt><trkpt lat="43.104637486956804" lon="0.6165230719613467"><ele>401.0</ele><time>2026-04-01T13:47:22Z</time></trkpt><trkpt lat="43.1047497787011" lon="0.6168420876966337"><ele>401.0</ele><time>2026-04-01T13:47:23Z</time></trkpt><trkpt lat="43.10486024736017" lon="0.6171572574551288"><ele>401.0</ele><time>2026-04-01T13:47:24Z</time></trkpt><trkpt lat="43.1049643680421" lon="0.6174661764106312"><ele>400.5</ele><time>2026-04-01T13:47:25Z</time></trkpt><trkpt lat="43.10506862898505" lon="0.6177724906477648"><ele>400.0</ele><time>2026-04-01T13:47:26Z</time></trkpt><trkpt lat="43.10517586263308" lon="0.618070553758126"><ele>400.0</ele><time>2026-04-01T13:47:27Z</time></trkpt><trkpt lat="43.105282744222784" lon="0.618366063520231"><ele>400.0</ele><time>2026-04-01T13:47:28Z</time></trkpt><trkpt lat="43.10538353189675" lon="0.6186603516416839"><ele>400.0</ele><time>2026-04-01T13:47:29Z</time></trkpt><trkpt lat="43.10548233842027" lon="0.6189501527580182"><ele>400.0</ele><time>2026-04-01T13:47:30Z</time></trkpt><trkpt lat="43.10558492294736" lon="0.6192350303484188"><ele>400.0</ele><time>2026-04-01T13:47:31Z</time></trkpt><trkpt lat="43.10568554278157" lon="0.6195137363749612"><ele>400.0</ele><time>2026-04-01T13:47:32Z</time></trkpt><trkpt lat="43.105780802404205" lon="0.6197914955033328"><ele>400.6666666666667</ele><time>2026-04-01T13:47:33Z</time></trkpt><trkpt lat="43.10588023209143" lon="0.6200690429768707"><ele>401.33333333333337</ele><time>2026-04-01T13:47:34Z</time></trkpt><trkpt lat="43.10597899722676" lon="0.6203403288986514"><ele>402.0</ele><time>2026-04-01T13:47:35Z</time></trkpt><trkpt lat="43.10607464762509" lon="0.620613107404357"><ele>402.0</ele><time>2026-04-01T13:47:36Z</time></trkpt><trkpt lat="43.10617043513695" lon="0.620882355916527"><ele>402.0</ele><time>2026-04-01T13:47:37Z</time></trkpt><trkpt lat="43.10626689286187" lon="0.6211495505929301"><ele>402.0</ele><time>2026-04-01T13:47:38Z</time></trkpt><trkpt lat="43.10635945173338" lon="0.6214123706125256"><ele>402.0</ele><time>2026-04-01T13:47:39Z</time></trkpt><trkpt lat="43.106457230374" lon="0.6216753528157952"><ele>402.0</ele><time>2026-04-01T13:47:40Z</time></trkpt><trkpt lat="43.106553598470406" lon="0.6219419839884401"><ele>402.0</ele><time>2026-04-01T13:47:41Z</time></trkpt><trkpt lat="43.10664828110265" lon="0.6222076010955496"><ele>402.0</ele><time>2026-04-01T13:47:42Z</time></trkpt><trkpt lat="43.10674102284667" lon="0.6224766091886316"><ele>402.0</ele><time>2026-04-01T13:47:43Z</time></trkpt><trkpt lat="43.106833397394446" lon="0.6227438353303184"><ele>402.0</ele><time>2026-04-01T13:47:44Z</time></trkpt><trkpt lat="43.10692962457792" lon="0.6230100255715578"><ele>402.0</ele><time>2026-04-01T13:47:45Z</time></trkpt><trkpt lat="43.10702274497744" lon="0.6232766735047458"><ele>402.0</ele><time>2026-04-01T13:47:46Z</time></trkpt><trkpt lat="43.107115096024486" lon="0.6235390453967014"><ele>402.0</ele><time>2026-04-01T13:47:47Z</time></trkpt><trkpt lat="43.10720641884606" lon="0.6237968769024768"><ele>402.0</ele><time>2026-04-01T13:47:48Z</time></trkpt><trkpt lat="43.10729968850896" lon="0.624050773659668"><ele>402.0</ele><time>2026-04-01T13:47:49Z</time></trkpt><trkpt lat="43.10739387742114" lon="0.6243006443497772"><ele>402.0</ele><time>2026-04-01T13:47:50Z</time></trkpt><trkpt lat="43.10749011257143" lon="0.6245528119344496"><ele>402.0</ele><time>2026-04-01T13:47:51Z</time></trkpt><trkpt lat="43.107580369995226" lon="0.6247996406108344"><ele>402.0</ele><time>2026-04-01T13:47:52Z</time></trkpt><trkpt lat="43.107668110840066" lon="0.6250393816895661"><ele>402.0</ele><time>2026-04-01T13:47:53Z</time></trkpt><trkpt lat="43.107751553267256" lon="0.6252708404373816"><ele>401.66666666666663</ele><time>2026-04-01T13:47:54Z</time></trkpt><trkpt lat="43.10784123795581" lon="0.6255097372928499"><ele>401.3333333333333</ele><time>2026-04-01T13:47:55Z</time></trkpt><trkpt lat="43.1079356888994" lon="0.6257596014442073"><ele>401.0</ele><time>2026-04-01T13:47:56Z</time></trkpt><trkpt lat="43.10803686781476" lon="0.626033009808154"><ele>398.5</ele><time>2026-04-01T13:47:57Z</time></trkpt><trkpt lat="43.10813684332998" lon="0.6263092776255419"><ele>396.0</ele><time>2026-04-01T13:47:58Z</time></trkpt><trkpt lat="43.10824068648733" lon="0.6265987237017561"><ele>396.5</ele><time>2026-04-01T13:47:59Z</time></trkpt><trkpt lat="43.1083433949024" lon="0.6268931985302165"><ele>397.0</ele><time>2026-04-01T13:48:00Z</time></trkpt><trkpt lat="43.108444698701554" lon="0.6271846883067022"><ele>397.0</ele><time>2026-04-01T13:48:01Z</time></trkpt><trkpt lat="43.10854643955943" lon="0.6274755167639471"><ele>397.0</ele><time>2026-04-01T13:48:02Z</time></trkpt><trkpt lat="43.10865613722498" lon="0.6277811767209719"><ele>395.0</ele><time>2026-04-01T13:48:03Z</time></trkpt><trkpt lat="43.10876630099411" lon="0.6280921567549368"><ele>393.0</ele><time>2026-04-01T13:48:04Z</time></trkpt><trkpt lat="43.10887339167118" lon="0.6283997084850462"><ele>392.5</ele><time>2026-04-01T13:48:05Z</time></trkpt><trkpt lat="43.1089792147094" lon="0.6287071718397682"><ele>392.0</ele><time>2026-04-01T13:48:06Z</time></trkpt><trkpt lat="43.10908489125886" lon="0.629005724959206"><ele>394.5</ele><time>2026-04-01T13:48:07Z</time></trkpt><trkpt lat="43.109187175096636" lon="0.6292989649198205"><ele>397.0</ele><time>2026-04-01T13:48:08Z</time></trkpt><trkpt lat="43.1092897395398" lon="0.6295834848366222"><ele>397.0</ele><time>2026-04-01T13:48:09Z</time></trkpt><trkpt lat="43.10938810542766" lon="0.6298598993020861"><ele>397.0</ele><time>2026-04-01T13:48:10Z</time></trkpt><trkpt lat="43.10948512403503" lon="0.6301299445988309"><ele>397.0</ele><time>2026-04-01T13:48:11Z</time></trkpt><trkpt lat="43.10957698788827" lon="0.6303872910393964"><ele>396.6666666666667</ele><time>2026-04-01T13:48:12Z</time></trkpt><trkpt lat="43.10966777384899" lon="0.6306390688774162"><ele>396.33333333333337</ele><time>2026-04-01T13:48:13Z</time></trkpt><trkpt lat="43.109752580147386" lon="0.6308824427042442"><ele>396.0</ele><time>2026-04-01T13:48:14Z</time></trkpt><trkpt lat="43.10983540501973" lon="0.6311146491241753"><ele>396.0</ele><time>2026-04-01T13:48:15Z</time></trkpt><trkpt lat="43.109919008560006" lon="0.6313456145327476"><ele>396.0</ele><time>2026-04-01T13:48:16Z</time></trkpt><trkpt lat="43.11000223688654" lon="0.6315781095843888"><ele>396.0</ele><time>2026-04-01T13:48:17Z</time></trkpt><trkpt lat="43.110084571367636" lon="0.6318106894708938"><ele>396.33333333333337</ele><time>2026-04-01T13:48:18Z</time></trkpt><trkpt lat="43.110177385776886" lon="0.6320582142209566"><ele>396.6666666666667</ele><time>2026-04-01T13:48:19Z</time></trkpt><trkpt lat="43.11027372414328" lon="0.6323256558662599"><ele>397.0</ele><time>2026-04-01T13:48:20Z</time></trkpt><trkpt lat="43.110376033133754" lon="0.6326056390975505"><ele>396.0</ele><time>2026-04-01T13:48:21Z</time></trkpt><trkpt lat="43.110477394393925" lon="0.6328943768630364"><ele>395.0</ele><time>2026-04-01T13:48:22Z</time></trkpt><trkpt lat="43.11057811870732" lon="0.6331945671083313"><ele>395.0</ele><time>2026-04-01T13:48:23Z</time></trkpt><trkpt lat="43.11067995212695" lon="0.6335035469139475"><ele>395.0</ele><time>2026-04-01T13:48:24Z</time></trkpt><trkpt lat="43.11078376729772" lon="0.6338182319696214"><ele>396.0</ele><time>2026-04-01T13:48:25Z</time></trkpt><trkpt lat="43.11088916653104" lon="0.6341358474629125"><ele>397.0</ele><time>2026-04-01T13:48:26Z</time></trkpt><trkpt lat="43.11099808248925" lon="0.6344590142477089"><ele>396.5</ele><time>2026-04-01T13:48:27Z</time></trkpt><trkpt lat="43.11110684246476" lon="0.6347785722397907"><ele>396.0</ele><time>2026-04-01T13:48:28Z</time></trkpt><trkpt lat="43.111217193963576" lon="0.6350940811755116"><ele>395.5</ele><time>2026-04-01T13:48:29Z</time></trkpt><trkpt lat="43.11132826715747" lon="0.6354087603354052"><ele>395.0</ele><time>2026-04-01T13:48:30Z</time></trkpt><trkpt lat="43.11144201889681" lon="0.6357279182578037"><ele>395.0</ele><time>2026-04-01T13:48:31Z</time></trkpt><trkpt lat="43.11155459344382" lon="0.6360388314966187"><ele>395.0</ele><time>2026-04-01T13:48:32Z</time></trkpt><trkpt lat="43.111671506044374" lon="0.6363621632657849"><ele>395.0</ele><time>2026-04-01T13:48:33Z</time></trkpt><trkpt lat="43.11178555340988" lon="0.6366698724655219"><ele>395.0</ele><time>2026-04-01T13:48:34Z</time></trkpt><trkpt lat="43.11190294984079" lon="0.6369934478941378"><ele>394.5</ele><time>2026-04-01T13:48:35Z</time></trkpt><trkpt lat="43.112016254114245" lon="0.6373119304922532"><ele>394.0</ele><time>2026-04-01T13:48:36Z</time></trkpt><trkpt lat="43.1121287775775" lon="0.6376280756868618"><ele>394.0</ele><time>2026-04-01T13:48:37Z</time></trkpt><trkpt lat="43.11224523792603" lon="0.6379517600655864"><ele>394.0</ele><time>2026-04-01T13:48:38Z</time></trkpt><trkpt lat="43.1123585340787" lon="0.6382729010400833"><ele>394.0</ele><time>2026-04-01T13:48:39Z</time></trkpt><trkpt lat="43.112473865357096" lon="0.6385935264011698"><ele>394.0</ele><time>2026-04-01T13:48:40Z</time></trkpt><trkpt lat="43.11259141229031" lon="0.638911213629095"><ele>394.0</ele><time>2026-04-01T13:48:41Z</time></trkpt><trkpt lat="43.112710294989704" lon="0.6392235024718529"><ele>394.0</ele><time>2026-04-01T13:48:42Z</time></trkpt><trkpt lat="43.11283617139258" lon="0.6395258884572983"><ele>393.5</ele><time>2026-04-01T13:48:43Z</time></trkpt><trkpt lat="43.11297149710243" lon="0.6398186416550807"><ele>393.0</ele><time>2026-04-01T13:48:44Z</time></trkpt><trkpt lat="43.113124091567414" lon="0.6400941082963791"><ele>393.0</ele><time>2026-04-01T13:48:45Z</time></trkpt><trkpt lat="43.11329981351435" lon="0.6403436113358151"><ele>393.0</ele><time>2026-04-01T13:48:46Z</time></trkpt><trkpt lat="43.11348939375723" lon="0.6405937347204297"><ele>393.0</ele><time>2026-04-01T13:48:47Z</time></trkpt><trkpt lat="43.11368653774032" lon="0.6408330528877263"><ele>393.0</ele><time>2026-04-01T13:48:48Z</time></trkpt><trkpt lat="43.11389226360592" lon="0.6410544482078445"><ele>393.5</ele><time>2026-04-01T13:48:49Z</time></trkpt><trkpt lat="43.114104767186745" lon="0.6412621144361442"><ele>394.0</ele><time>2026-04-01T13:48:50Z</time></trkpt><trkpt lat="43.11431715441492" lon="0.6414614991412616"><ele>394.0</ele><time>2026-04-01T13:48:51Z</time></trkpt><trkpt lat="43.1145272809043" lon="0.6416632472395593"><ele>394.0</ele><time>2026-04-01T13:48:52Z</time></trkpt><trkpt lat="43.11473890276679" lon="0.6418629651331694"><ele>393.5</ele><time>2026-04-01T13:48:53Z</time></trkpt><trkpt lat="43.11494732083363" lon="0.642057380166016"><ele>393.0</ele><time>2026-04-01T13:48:54Z</time></trkpt><trkpt lat="43.11514818640021" lon="0.6422559116184196"><ele>393.0</ele><time>2026-04-01T13:48:55Z</time></trkpt><trkpt lat="43.11534716876106" lon="0.6424791188586564"><ele>393.0</ele><time>2026-04-01T13:48:56Z</time></trkpt><trkpt lat="43.11553678465576" lon="0.6427201771122243"><ele>393.0</ele><time>2026-04-01T13:48:57Z</time></trkpt><trkpt lat="43.11571341484634" lon="0.6429806776182467"><ele>393.0</ele><time>2026-04-01T13:48:58Z</time></trkpt><trkpt lat="43.11586864197196" lon="0.6432698608637881"><ele>393.0</ele><time>2026-04-01T13:48:59Z</time></trkpt><trkpt lat="43.116000545269415" lon="0.6435820193496653"><ele>393.0</ele><time>2026-04-01T13:49:00Z</time></trkpt><trkpt lat="43.1161106101186" lon="0.6439069588048012"><ele>392.0</ele><time>2026-04-01T13:49:01Z</time></trkpt><trkpt lat="43.11619572142848" lon="0.6442344666100804"><ele>391.0</ele><time>2026-04-01T13:49:02Z</time></trkpt><trkpt lat="43.116257769431854" lon="0.6445653508179788"><ele>390.33333333333337</ele><time>2026-04-01T13:49:03Z</time></trkpt><trkpt lat="43.116297845638435" lon="0.6448766720800374"><ele>389.66666666666663</ele><time>2026-04-01T13:49:04Z</time></trkpt><trkpt lat="43.11631961918814" lon="0.6451654858835506"><ele>389.0</ele><time>2026-04-01T13:49:05Z</time></trkpt><trkpt lat="43.1163275108037" lon="0.645420381263077"><ele>388.3333333333333</ele><time>2026-04-01T13:49:06Z</time></trkpt><trkpt lat="43.11633106766496" lon="0.6456567394409164"><ele>387.66666666666663</ele><time>2026-04-01T13:49:07Z</time></trkpt><trkpt lat="43.11633537128323" lon="0.6458764594908859"><ele>387.0</ele><time>2026-04-01T13:49:08Z</time></trkpt><trkpt lat="43.116323369070976" lon="0.6461336286508189"><ele>386.33333333333337</ele><time>2026-04-01T13:49:09Z</time></trkpt><trkpt lat="43.11632101779093" lon="0.6464224619791709"><ele>385.6666666666667</ele><time>2026-04-01T13:49:10Z</time></trkpt><trkpt lat="43.11631955004279" lon="0.6467249849679904"><ele>385.0</ele><time>2026-04-01T13:49:11Z</time></trkpt><trkpt lat="43.116334111074735" lon="0.6470244932537668"><ele>385.0</ele><time>2026-04-01T13:49:12Z</time></trkpt><trkpt lat="43.11633331395227" lon="0.6473066561477266"><ele>385.0</ele><time>2026-04-01T13:49:13Z</time></trkpt><trkpt lat="43.116342951056644" lon="0.6475747374495697"><ele>385.0</ele><time>2026-04-01T13:49:14Z</time></trkpt><trkpt lat="43.11636115781085" lon="0.6478535744602918"><ele>385.33333333333337</ele><time>2026-04-01T13:49:15Z</time></trkpt><trkpt lat="43.11638646584877" lon="0.6481337667110776"><ele>385.66666666666663</ele><time>2026-04-01T13:49:16Z</time></trkpt><trkpt lat="43.11641396775386" lon="0.6484172833652032"><ele>386.0</ele><time>2026-04-01T13:49:17Z</time></trkpt><trkpt lat="43.11644441940453" lon="0.648695977089561"><ele>386.3333333333333</ele><time>2026-04-01T13:49:18Z</time></trkpt><trkpt lat="43.11648140938335" lon="0.6489718462773233"><ele>386.66666666666663</ele><time>2026-04-01T13:49:19Z</time></trkpt><trkpt lat="43.1165181170927" lon="0.6492379620192086"><ele>387.0</ele><time>2026-04-01T13:49:20Z</time></trkpt><trkpt lat="43.11655615604862" lon="0.649473255569759"><ele>387.0</ele><time>2026-04-01T13:49:21Z</time></trkpt><trkpt lat="43.11659188757193" lon="0.6496683531883539"><ele>387.0</ele><time>2026-04-01T13:49:22Z</time></trkpt><trkpt lat="43.11663501415177" lon="0.6498499747450489"><ele>387.0</ele><time>2026-04-01T13:49:23Z</time></trkpt><trkpt lat="43.116673237120615" lon="0.6500247498496344"><ele>387.0</ele><time>2026-04-01T13:49:24Z</time></trkpt><trkpt lat="43.11671545590051" lon="0.6502227397522793"><ele>387.0</ele><time>2026-04-01T13:49:25Z</time></trkpt><trkpt lat="43.11677122711418" lon="0.6504376282674708"><ele>387.0</ele><time>2026-04-01T13:49:26Z</time></trkpt><trkpt lat="43.116825025380116" lon="0.650645278842492"><ele>387.0</ele><time>2026-04-01T13:49:27Z</time></trkpt><trkpt lat="43.116878151569196" lon="0.6508481466820268"><ele>387.0</ele><time>2026-04-01T13:49:28Z</time></trkpt><trkpt lat="43.11693781724106" lon="0.6510650514828779"><ele>387.0</ele><time>2026-04-01T13:49:29Z</time></trkpt><trkpt lat="43.11700615803148" lon="0.6512967539641662"><ele>387.0</ele><time>2026-04-01T13:49:30Z</time></trkpt><trkpt lat="43.11709323661712" lon="0.6515543160938442"><ele>386.0</ele><time>2026-04-01T13:49:31Z</time></trkpt><trkpt lat="43.1171943950952" lon="0.6518278213251907"><ele>385.0</ele><time>2026-04-01T13:49:32Z</time></trkpt><trkpt lat="43.1172968322579" lon="0.652124069436273"><ele>384.5</ele><time>2026-04-01T13:49:33Z</time></trkpt><trkpt lat="43.117396945449414" lon="0.6524193491596165"><ele>384.0</ele><time>2026-04-01T13:49:34Z</time></trkpt><trkpt lat="43.11749409966547" lon="0.6527275725944186"><ele>383.5</ele><time>2026-04-01T13:49:35Z</time></trkpt><trkpt lat="43.117594636155644" lon="0.653046772750837"><ele>383.0</ele><time>2026-04-01T13:49:36Z</time></trkpt><trkpt lat="43.11770281883255" lon="0.6533641945371815"><ele>382.5</ele><time>2026-04-01T13:49:37Z</time></trkpt><trkpt lat="43.11781515127603" lon="0.6536843910366708"><ele>382.0</ele><time>2026-04-01T13:49:38Z</time></trkpt><trkpt lat="43.11792485664256" lon="0.6539918741519382"><ele>382.0</ele><time>2026-04-01T13:49:39Z</time></trkpt><trkpt lat="43.11803493006649" lon="0.6542962820245368"><ele>382.0</ele><time>2026-04-01T13:49:40Z</time></trkpt><trkpt lat="43.11814226992966" lon="0.6545968036716354"><ele>384.0</ele><time>2026-04-01T13:49:41Z</time></trkpt><trkpt lat="43.118251348857456" lon="0.6549025362633375"><ele>386.0</ele><time>2026-04-01T13:49:42Z</time></trkpt><trkpt lat="43.11836150868128" lon="0.655208322702868"><ele>385.5</ele><time>2026-04-01T13:49:43Z</time></trkpt><trkpt lat="43.11847110375373" lon="0.6555139259120062"><ele>385.0</ele><time>2026-04-01T13:49:44Z</time></trkpt><trkpt lat="43.118574658371124" lon="0.655809963631363"><ele>385.0</ele><time>2026-04-01T13:49:45Z</time></trkpt><trkpt lat="43.11866863145266" lon="0.6560935510517978"><ele>385.0</ele><time>2026-04-01T13:49:46Z</time></trkpt><trkpt lat="43.11874956785726" lon="0.6563708114429552"><ele>385.0</ele><time>2026-04-01T13:49:47Z</time></trkpt><trkpt lat="43.11881409389196" lon="0.656645287947223"><ele>385.0</ele><time>2026-04-01T13:49:48Z</time></trkpt><trkpt lat="43.11885809478694" lon="0.6569145371321454"><ele>385.0</ele><time>2026-04-01T13:49:49Z</time></trkpt><trkpt lat="43.11888110311678" lon="0.657184791731651"><ele>385.0</ele><time>2026-04-01T13:49:50Z</time></trkpt><trkpt lat="43.118894355421034" lon="0.6574540029987174"><ele>385.0</ele><time>2026-04-01T13:49:51Z</time></trkpt><trkpt lat="43.118894547485084" lon="0.6577241638534022"><ele>385.0</ele><time>2026-04-01T13:49:52Z</time></trkpt><trkpt lat="43.11886688239562" lon="0.6579901093479685"><ele>385.0</ele><time>2026-04-01T13:49:53Z</time></trkpt><trkpt lat="43.118817905307395" lon="0.6582503778276204"><ele>385.33333333333337</ele><time>2026-04-01T13:49:54Z</time></trkpt><trkpt lat="43.118764888764886" lon="0.6585149314177982"><ele>385.66666666666663</ele><time>2026-04-01T13:49:55Z</time></trkpt><trkpt lat="43.11871381176107" lon="0.6587797978484471"><ele>386.0</ele><time>2026-04-01T13:49:56Z</time></trkpt><trkpt lat="43.118663937204204" lon="0.6590436639507432"><ele>386.0</ele><time>2026-04-01T13:49:57Z</time></trkpt><trkpt lat="43.118617302338606" lon="0.6593054949412307"><ele>386.0</ele><time>2026-04-01T13:49:58Z</time></trkpt><trkpt lat="43.1185709832069" lon="0.6595576140835453"><ele>386.0</ele><time>2026-04-01T13:49:59Z</time></trkpt><trkpt lat="43.11852197107566" lon="0.6598131068330627"><ele>385.66666666666663</ele><time>2026-04-01T13:50:00Z</time></trkpt><trkpt lat="43.11847264213755" lon="0.660072394012728"><ele>385.33333333333337</ele><time>2026-04-01T13:50:01Z</time></trkpt><trkpt lat="43.11842465675929" lon="0.660333632684785"><ele>385.0</ele><time>2026-04-01T13:50:02Z</time></trkpt><trkpt lat="43.1183737911652" lon="0.660607862275667"><ele>384.6666666666667</ele><time>2026-04-01T13:50:03Z</time></trkpt><trkpt lat="43.118318529713825" lon="0.6608868288418237"><ele>384.33333333333337</ele><time>2026-04-01T13:50:04Z</time></trkpt><trkpt lat="43.1182621251027" lon="0.661167840911658"><ele>384.0</ele><time>2026-04-01T13:50:05Z</time></trkpt><trkpt lat="43.11820812051969" lon="0.6614524140471794"><ele>383.6666666666667</ele><time>2026-04-01T13:50:06Z</time></trkpt><trkpt lat="43.11815690014413" lon="0.661740045624251"><ele>383.33333333333337</ele><time>2026-04-01T13:50:07Z</time></trkpt><trkpt lat="43.11810368114135" lon="0.6620355757764671"><ele>383.0</ele><time>2026-04-01T13:50:08Z</time></trkpt><trkpt lat="43.118045351066094" lon="0.6623328355034503"><ele>383.0</ele><time>2026-04-01T13:50:09Z</time></trkpt><trkpt lat="43.11798944558762" lon="0.6626331114491121"><ele>383.0</ele><time>2026-04-01T13:50:10Z</time></trkpt><trkpt lat="43.117932931005285" lon="0.66292747912326"><ele>383.0</ele><time>2026-04-01T13:50:11Z</time></trkpt><trkpt lat="43.117878310577524" lon="0.6632146059585479"><ele>383.0</ele><time>2026-04-01T13:50:12Z</time></trkpt><trkpt lat="43.117826435226974" lon="0.6634946141049196"><ele>383.0</ele><time>2026-04-01T13:50:13Z</time></trkpt><trkpt lat="43.11777631498878" lon="0.6637690254465574"><ele>383.0</ele><time>2026-04-01T13:50:14Z</time></trkpt><trkpt lat="43.11772545438719" lon="0.6640373510348097"><ele>383.0</ele><time>2026-04-01T13:50:15Z</time></trkpt><trkpt lat="43.11767452480304" lon="0.6642965328522705"><ele>383.0</ele><time>2026-04-01T13:50:16Z</time></trkpt><trkpt lat="43.11762523933533" lon="0.6645573520620678"><ele>383.0</ele><time>2026-04-01T13:50:17Z</time></trkpt><trkpt lat="43.11757695383833" lon="0.6648154632961287"><ele>382.6666666666667</ele><time>2026-04-01T13:50:18Z</time></trkpt><trkpt lat="43.11753014874349" lon="0.6650666908945244"><ele>382.3333333333333</ele><time>2026-04-01T13:50:19Z</time></trkpt><trkpt lat="43.11748287691612" lon="0.6653073002386074"><ele>382.0</ele><time>2026-04-01T13:50:20Z</time></trkpt><trkpt lat="43.117434549922805" lon="0.6655477379161827"><ele>382.0</ele><time>2026-04-01T13:50:21Z</time></trkpt><trkpt lat="43.11738625720282" lon="0.6657875746884215"><ele>382.0</ele><time>2026-04-01T13:50:22Z</time></trkpt><trkpt lat="43.11733432480954" lon="0.6660439757602358"><ele>382.0</ele><time>2026-04-01T13:50:23Z</time></trkpt><trkpt lat="43.11727976544995" lon="0.6663066976041527"><ele>382.0</ele><time>2026-04-01T13:50:24Z</time></trkpt><trkpt lat="43.11722676718066" lon="0.6665701031529689"><ele>382.0</ele><time>2026-04-01T13:50:25Z</time></trkpt><trkpt lat="43.11717743945963" lon="0.6668338097594046"><ele>382.0</ele><time>2026-04-01T13:50:26Z</time></trkpt><trkpt lat="43.117126301321285" lon="0.6671045745734825"><ele>381.66666666666663</ele><time>2026-04-01T13:50:27Z</time></trkpt><trkpt lat="43.117077633260095" lon="0.6673713796000545"><ele>381.3333333333333</ele><time>2026-04-01T13:50:28Z</time></trkpt><trkpt lat="43.117029993213876" lon="0.6676386940670895"><ele>381.0</ele><time>2026-04-01T13:50:29Z</time></trkpt><trkpt lat="43.11698416746802" lon="0.6679115562943216"><ele>381.0</ele><time>2026-04-01T13:50:30Z</time></trkpt><trkpt lat="43.11694077584868" lon="0.668173634358062"><ele>381.0</ele><time>2026-04-01T13:50:31Z</time></trkpt><trkpt lat="43.11689744455258" lon="0.6684277750515384"><ele>381.0</ele><time>2026-04-01T13:50:32Z</time></trkpt><trkpt lat="43.11685357728724" lon="0.66867109788415"><ele>380.6666666666667</ele><time>2026-04-01T13:50:33Z</time></trkpt><trkpt lat="43.11681324054566" lon="0.6689002154708491"><ele>380.33333333333337</ele><time>2026-04-01T13:50:34Z</time></trkpt><trkpt lat="43.11677276054759" lon="0.669122863960535"><ele>380.0</ele><time>2026-04-01T13:50:35Z</time></trkpt><trkpt lat="43.116733607018766" lon="0.6693317533628117"><ele>380.0</ele><time>2026-04-01T13:50:36Z</time></trkpt><trkpt lat="43.11669690766148" lon="0.6695336284492327"><ele>380.0</ele><time>2026-04-01T13:50:37Z</time></trkpt><trkpt lat="43.116661752723424" lon="0.6697235854105191"><ele>380.0</ele><time>2026-04-01T13:50:38Z</time></trkpt><trkpt lat="43.116628438629945" lon="0.6698849787251532"><ele>380.0</ele><time>2026-04-01T13:50:39Z</time></trkpt><trkpt lat="43.11659397467437" lon="0.670027011062181"><ele>380.0</ele><time>2026-04-01T13:50:40Z</time></trkpt><trkpt lat="43.11654813627004" lon="0.6701618623113226"><ele>380.0</ele><time>2026-04-01T13:50:41Z</time></trkpt><trkpt lat="43.11648177332543" lon="0.6702561386087572"><ele>380.0</ele><time>2026-04-01T13:50:42Z</time></trkpt><trkpt lat="43.116411400191254" lon="0.6703248228117613"><ele>380.0</ele><time>2026-04-01T13:50:43Z</time></trkpt><trkpt lat="43.116369992624634" lon="0.6704134394770832"><ele>380.0</ele><time>2026-04-01T13:50:44Z</time></trkpt><trkpt lat="43.11637184513254" lon="0.6705108820982077"><ele>380.0</ele><time>2026-04-01T13:50:45Z</time></trkpt><trkpt lat="43.11639491913293" lon="0.6706144378346758"><ele>379.75</ele><time>2026-04-01T13:50:46Z</time></trkpt><trkpt lat="43.116410625967276" lon="0.6707498158991171"><ele>379.5</ele><time>2026-04-01T13:50:47Z</time></trkpt><trkpt lat="43.116405494441686" lon="0.6709115331824828"><ele>379.25</ele><time>2026-04-01T13:50:48Z</time></trkpt><trkpt lat="43.11638098982514" lon="0.6710868801890391"><ele>379.0</ele><time>2026-04-01T13:50:49Z</time></trkpt><trkpt lat="43.11634127697471" lon="0.6712876586210255"><ele>379.0</ele><time>2026-04-01T13:50:50Z</time></trkpt><trkpt lat="43.11629425054617" lon="0.671528940113865"><ele>379.0</ele><time>2026-04-01T13:50:51Z</time></trkpt><trkpt lat="43.11623681852731" lon="0.6717901875523781"><ele>379.0</ele><time>2026-04-01T13:50:52Z</time></trkpt><trkpt lat="43.116167014724574" lon="0.6720584350058432"><ele>379.5</ele><time>2026-04-01T13:50:53Z</time></trkpt><trkpt lat="43.11607953244889" lon="0.6723458970870557"><ele>380.0</ele><time>2026-04-01T13:50:54Z</time></trkpt><trkpt lat="43.11597773757275" lon="0.6726392709332928"><ele>380.0</ele><time>2026-04-01T13:50:55Z</time></trkpt><trkpt lat="43.11586981180527" lon="0.6729365188231521"><ele>380.0</ele><time>2026-04-01T13:50:56Z</time></trkpt><trkpt lat="43.11575889684451" lon="0.6732429680516216"><ele>380.0</ele><time>2026-04-01T13:50:57Z</time></trkpt><trkpt lat="43.115640239791084" lon="0.6735550171256585"><ele>380.0</ele><time>2026-04-01T13:50:58Z</time></trkpt><trkpt lat="43.115506111894675" lon="0.6738638800684269"><ele>380.0</ele><time>2026-04-01T13:50:59Z</time></trkpt><trkpt lat="43.115365330929016" lon="0.6741635523853919"><ele>380.0</ele><time>2026-04-01T13:51:00Z</time></trkpt><trkpt lat="43.115225620097526" lon="0.6744555403142386"><ele>380.0</ele><time>2026-04-01T13:51:01Z</time></trkpt><trkpt lat="43.11508553183536" lon="0.6747453876470721"><ele>380.0</ele><time>2026-04-01T13:51:02Z</time></trkpt><trkpt lat="43.114944355944274" lon="0.6750301721152484"><ele>379.0</ele><time>2026-04-01T13:51:03Z</time></trkpt><trkpt lat="43.11480524424287" lon="0.675310625515912"><ele>378.0</ele><time>2026-04-01T13:51:04Z</time></trkpt><trkpt lat="43.11466937876724" lon="0.6755858201544342"><ele>378.0</ele><time>2026-04-01T13:51:05Z</time></trkpt><trkpt lat="43.11452846755567" lon="0.6758561029819609"><ele>378.0</ele><time>2026-04-01T13:51:06Z</time></trkpt><trkpt lat="43.11438393882926" lon="0.6761298834941589"><ele>377.5</ele><time>2026-04-01T13:51:07Z</time></trkpt><trkpt lat="43.11424454678916" lon="0.6764014393310929"><ele>377.0</ele><time>2026-04-01T13:51:08Z</time></trkpt><trkpt lat="43.1141061351976" lon="0.6766753026976202"><ele>376.5</ele><time>2026-04-01T13:51:09Z</time></trkpt><trkpt lat="43.113968545795544" lon="0.6769524265210245"><ele>376.0</ele><time>2026-04-01T13:51:10Z</time></trkpt><trkpt lat="43.11384044592027" lon="0.6772385520937276"><ele>376.0</ele><time>2026-04-01T13:51:11Z</time></trkpt><trkpt lat="43.113720004436644" lon="0.6775383927914291"><ele>376.0</ele><time>2026-04-01T13:51:12Z</time></trkpt><trkpt lat="43.11361417839472" lon="0.6778464882265429"><ele>377.0</ele><time>2026-04-01T13:51:13Z</time></trkpt><trkpt lat="43.11353252474971" lon="0.6781702232098283"><ele>378.0</ele><time>2026-04-01T13:51:14Z</time></trkpt><trkpt lat="43.11347394685547" lon="0.6785094725228592"><ele>377.0</ele><time>2026-04-01T13:51:15Z</time></trkpt><trkpt lat="43.113432782848996" lon="0.6788556551720221"><ele>376.0</ele><time>2026-04-01T13:51:16Z</time></trkpt><trkpt lat="43.11341314435844" lon="0.6792056791427478"><ele>376.0</ele><time>2026-04-01T13:51:17Z</time></trkpt><trkpt lat="43.11341541244753" lon="0.6795553960172126"><ele>376.0</ele><time>2026-04-01T13:51:18Z</time></trkpt><trkpt lat="43.11343941008626" lon="0.6799018239762107"><ele>376.0</ele><time>2026-04-01T13:51:19Z</time></trkpt><trkpt lat="43.11348391985396" lon="0.6802431742969735"><ele>376.0</ele><time>2026-04-01T13:51:20Z</time></trkpt><trkpt lat="43.11354798041549" lon="0.6805774012607041"><ele>375.0</ele><time>2026-04-01T13:51:21Z</time></trkpt><trkpt lat="43.11362897081029" lon="0.6809010585712107"><ele>374.0</ele><time>2026-04-01T13:51:22Z</time></trkpt><trkpt lat="43.113715641322734" lon="0.6812216962643638"><ele>374.0</ele><time>2026-04-01T13:51:23Z</time></trkpt><trkpt lat="43.11379389028444" lon="0.681543660631035"><ele>374.0</ele><time>2026-04-01T13:51:24Z</time></trkpt><trkpt lat="43.11386464714448" lon="0.6818687457108914"><ele>374.5</ele><time>2026-04-01T13:51:25Z</time></trkpt><trkpt lat="43.11393023088019" lon="0.6821941825944652"><ele>375.0</ele><time>2026-04-01T13:51:26Z</time></trkpt><trkpt lat="43.11397891050422" lon="0.6825227489191252"><ele>374.5</ele><time>2026-04-01T13:51:27Z</time></trkpt><trkpt lat="43.11400595506974" lon="0.6828546483233184"><ele>374.0</ele><time>2026-04-01T13:51:28Z</time></trkpt><trkpt lat="43.11401198874369" lon="0.683189878896908"><ele>374.0</ele><time>2026-04-01T13:51:29Z</time></trkpt><trkpt lat="43.11400177834942" lon="0.6835217106719775"><ele>374.0</ele><time>2026-04-01T13:51:30Z</time></trkpt><trkpt lat="43.11397427197073" lon="0.6838512365145553"><ele>374.5</ele><time>2026-04-01T13:51:31Z</time></trkpt><trkpt lat="43.113926671251086" lon="0.6841724116391521"><ele>375.0</ele><time>2026-04-01T13:51:32Z</time></trkpt><trkpt lat="43.11386104859634" lon="0.6844882294037424"><ele>375.5</ele><time>2026-04-01T13:51:33Z</time></trkpt><trkpt lat="43.11379984794565" lon="0.684804360053099"><ele>376.0</ele><time>2026-04-01T13:51:34Z</time></trkpt><trkpt lat="43.11374359503593" lon="0.6851213724965763"><ele>376.5</ele><time>2026-04-01T13:51:35Z</time></trkpt><trkpt lat="43.113678308532776" lon="0.6854326331665983"><ele>377.0</ele><time>2026-04-01T13:51:36Z</time></trkpt><trkpt lat="43.113611605671096" lon="0.6857460245788488"><ele>377.0</ele><time>2026-04-01T13:51:37Z</time></trkpt><trkpt lat="43.113554196948165" lon="0.6860611236967896"><ele>377.0</ele><time>2026-04-01T13:51:38Z</time></trkpt><trkpt lat="43.11349619103683" lon="0.686374272960733"><ele>376.5</ele><time>2026-04-01T13:51:39Z</time></trkpt><trkpt lat="43.11343558084628" lon="0.6866916266719089"><ele>376.0</ele><time>2026-04-01T13:51:40Z</time></trkpt><trkpt lat="43.113376721709066" lon="0.6870099859334551"><ele>376.0</ele><time>2026-04-01T13:51:41Z</time></trkpt><trkpt lat="43.11331854300065" lon="0.6873274867607706"><ele>376.0</ele><time>2026-04-01T13:51:42Z</time></trkpt><trkpt lat="43.11325746440628" lon="0.687646769379804"><ele>375.0</ele><time>2026-04-01T13:51:43Z</time></trkpt><trkpt lat="43.113194076292686" lon="0.6879652233967443"><ele>374.0</ele><time>2026-04-01T13:51:44Z</time></trkpt><trkpt lat="43.113132680584506" lon="0.6882775166474211"><ele>374.0</ele><time>2026-04-01T13:51:45Z</time></trkpt><trkpt lat="43.11307745843575" lon="0.6885909281068417"><ele>374.0</ele><time>2026-04-01T13:51:46Z</time></trkpt><trkpt lat="43.113022868288574" lon="0.6888971043877737"><ele>374.5</ele><time>2026-04-01T13:51:47Z</time></trkpt><trkpt lat="43.112966327644145" lon="0.6891974081028194"><ele>375.0</ele><time>2026-04-01T13:51:48Z</time></trkpt><trkpt lat="43.11290668859423" lon="0.6894996451410558"><ele>375.5</ele><time>2026-04-01T13:51:49Z</time></trkpt><trkpt lat="43.11284743495701" lon="0.689802018318172"><ele>376.0</ele><time>2026-04-01T13:51:50Z</time></trkpt><trkpt lat="43.11279103824059" lon="0.6901078235127042"><ele>376.0</ele><time>2026-04-01T13:51:51Z</time></trkpt><trkpt lat="43.11273423072367" lon="0.6904120461243177"><ele>376.0</ele><time>2026-04-01T13:51:52Z</time></trkpt><trkpt lat="43.112673399373335" lon="0.6907179968338071"><ele>376.0</ele><time>2026-04-01T13:51:53Z</time></trkpt><trkpt lat="43.11261110700761" lon="0.6910218723713945"><ele>376.0</ele><time>2026-04-01T13:51:54Z</time></trkpt><trkpt lat="43.11255256078589" lon="0.6913294056780624"><ele>375.5</ele><time>2026-04-01T13:51:55Z</time></trkpt><trkpt lat="43.11249665751038" lon="0.6916353872115006"><ele>375.0</ele><time>2026-04-01T13:51:56Z</time></trkpt><trkpt lat="43.112440413529285" lon="0.6919396734033145"><ele>374.5</ele><time>2026-04-01T13:51:57Z</time></trkpt><trkpt lat="43.112385047011124" lon="0.6922444684856999"><ele>374.0</ele><time>2026-04-01T13:51:58Z</time></trkpt><trkpt lat="43.112331014399984" lon="0.6925432765660987"><ele>373.6666666666667</ele><time>2026-04-01T13:51:59Z</time></trkpt><trkpt lat="43.11227725897459" lon="0.6928416402579238"><ele>373.3333333333333</ele><time>2026-04-01T13:52:00Z</time></trkpt><trkpt lat="43.11222090196334" lon="0.6931384249818326"><ele>373.0</ele><time>2026-04-01T13:52:01Z</time></trkpt><trkpt lat="43.11216278860983" lon="0.6934309952904948"><ele>373.66666666666663</ele><time>2026-04-01T13:52:02Z</time></trkpt><trkpt lat="43.11210662278068" lon="0.693718532453755"><ele>374.3333333333333</ele><time>2026-04-01T13:52:03Z</time></trkpt><trkpt lat="43.112052905996066" lon="0.6939944913892726"><ele>375.0</ele><time>2026-04-01T13:52:04Z</time></trkpt><trkpt lat="43.11200282645286" lon="0.6942538414196204"><ele>376.0</ele><time>2026-04-01T13:52:05Z</time></trkpt><trkpt lat="43.11195505263835" lon="0.6945055224544908"><ele>377.0</ele><time>2026-04-01T13:52:06Z</time></trkpt><trkpt lat="43.11190537954871" lon="0.6947428165656939"><ele>378.0</ele><time>2026-04-01T13:52:07Z</time></trkpt><trkpt lat="43.11184661007178" lon="0.694956634462912"><ele>378.0</ele><time>2026-04-01T13:52:08Z</time></trkpt><trkpt lat="43.11178275340651" lon="0.6951504481054168"><ele>378.0</ele><time>2026-04-01T13:52:09Z</time></trkpt><trkpt lat="43.11171371955256" lon="0.6953233134248541"><ele>378.0</ele><time>2026-04-01T13:52:10Z</time></trkpt><trkpt lat="43.11165258975945" lon="0.6954869622820544"><ele>378.0</ele><time>2026-04-01T13:52:11Z</time></trkpt><trkpt lat="43.111612060336306" lon="0.6956510151078128"><ele>377.0</ele><time>2026-04-01T13:52:12Z</time></trkpt><trkpt lat="43.11159943618867" lon="0.6958415027270936"><ele>376.0</ele><time>2026-04-01T13:52:13Z</time></trkpt><trkpt lat="43.1116252066232" lon="0.6960506430500473"><ele>375.0</ele><time>2026-04-01T13:52:14Z</time></trkpt><trkpt lat="43.11161567892152" lon="0.6962867120806094"><ele>375.0</ele><time>2026-04-01T13:52:15Z</time></trkpt><trkpt lat="43.11156268512839" lon="0.69654936885602"><ele>375.0</ele><time>2026-04-01T13:52:16Z</time></trkpt><trkpt lat="43.11150354053626" lon="0.6968338872168528"><ele>375.0</ele><time>2026-04-01T13:52:17Z</time></trkpt><trkpt lat="43.1114451458491" lon="0.6971199581611073"><ele>375.0</ele><time>2026-04-01T13:52:18Z</time></trkpt><trkpt lat="43.11138759404058" lon="0.6974033920828622"><ele>375.0</ele><time>2026-04-01T13:52:19Z</time></trkpt><trkpt lat="43.11133279471938" lon="0.6976850226303806"><ele>375.0</ele><time>2026-04-01T13:52:20Z</time></trkpt><trkpt lat="43.11127972543429" lon="0.6979676536617718"><ele>374.6666666666667</ele><time>2026-04-01T13:52:21Z</time></trkpt><trkpt lat="43.111224714679686" lon="0.698247817999347"><ele>374.33333333333337</ele><time>2026-04-01T13:52:22Z</time></trkpt><trkpt lat="43.11117109405681" lon="0.6985247932895237"><ele>374.0</ele><time>2026-04-01T13:52:23Z</time></trkpt><trkpt lat="43.11112090625874" lon="0.6988044150161914"><ele>373.6666666666667</ele><time>2026-04-01T13:52:24Z</time></trkpt><trkpt lat="43.11106885247882" lon="0.699083947435133"><ele>373.3333333333333</ele><time>2026-04-01T13:52:25Z</time></trkpt><trkpt lat="43.111014877137144" lon="0.6993657538131783"><ele>373.0</ele><time>2026-04-01T13:52:26Z</time></trkpt><trkpt lat="43.11096432497998" lon="0.6996505966520895"><ele>373.0</ele><time>2026-04-01T13:52:27Z</time></trkpt><trkpt lat="43.11091281211595" lon="0.6999397492926775"><ele>373.0</ele><time>2026-04-01T13:52:28Z</time></trkpt><trkpt lat="43.110856870157754" lon="0.7002298375489426"><ele>373.0</ele><time>2026-04-01T13:52:29Z</time></trkpt><trkpt lat="43.110798890427525" lon="0.7005175730326098"><ele>373.5</ele><time>2026-04-01T13:52:30Z</time></trkpt><trkpt lat="43.11073753496228" lon="0.7008305521065917"><ele>374.0</ele><time>2026-04-01T13:52:31Z</time></trkpt><trkpt lat="43.11067768641538" lon="0.7011517011999125"><ele>374.0</ele><time>2026-04-01T13:52:32Z</time></trkpt><trkpt lat="43.11061837985963" lon="0.7014771214840242"><ele>374.0</ele><time>2026-04-01T13:52:33Z</time></trkpt><trkpt lat="43.110564178520946" lon="0.7018021947890427"><ele>374.0</ele><time>2026-04-01T13:52:34Z</time></trkpt><trkpt lat="43.11052474415596" lon="0.7021251325641502"><ele>374.0</ele><time>2026-04-01T13:52:35Z</time></trkpt><trkpt lat="43.11050527231441" lon="0.7024493817180086"><ele>373.5</ele><time>2026-04-01T13:52:36Z</time></trkpt><trkpt lat="43.11049993077257" lon="0.7027805914771187"><ele>373.0</ele><time>2026-04-01T13:52:37Z</time></trkpt><trkpt lat="43.110505754072804" lon="0.7031185859526363"><ele>373.0</ele><time>2026-04-01T13:52:38Z</time></trkpt><trkpt lat="43.11051887405001" lon="0.7034761641643544"><ele>373.0</ele><time>2026-04-01T13:52:39Z</time></trkpt><trkpt lat="43.11054117390427" lon="0.7038270178204744"><ele>373.0</ele><time>2026-04-01T13:52:40Z</time></trkpt><trkpt lat="43.11057260310506" lon="0.704158311243662"><ele>373.0</ele><time>2026-04-01T13:52:41Z</time></trkpt><trkpt lat="43.11060414526698" lon="0.7044813262069518"><ele>374.5</ele><time>2026-04-01T13:52:42Z</time></trkpt><trkpt lat="43.11061460849054" lon="0.7048024321899674"><ele>376.0</ele><time>2026-04-01T13:52:43Z</time></trkpt><trkpt lat="43.110604876720906" lon="0.7051203589170473"><ele>378.0</ele><time>2026-04-01T13:52:44Z</time></trkpt><trkpt lat="43.11056490197554" lon="0.7054274903837081"><ele>380.0</ele><time>2026-04-01T13:52:45Z</time></trkpt><trkpt lat="43.110493997297425" lon="0.7057328185911712"><ele>380.0</ele><time>2026-04-01T13:52:46Z</time></trkpt><trkpt lat="43.11039024441233" lon="0.7060294608666409"><ele>380.0</ele><time>2026-04-01T13:52:47Z</time></trkpt><trkpt lat="43.110252024205685" lon="0.7063046669830725"><ele>387.5</ele><time>2026-04-01T13:52:48Z</time></trkpt><trkpt lat="43.11009213332415" lon="0.7065594105826423"><ele>395.0</ele><time>2026-04-01T13:52:49Z</time></trkpt><trkpt lat="43.10991977919927" lon="0.7067890895850081"><ele>396.0</ele><time>2026-04-01T13:52:50Z</time></trkpt><trkpt lat="43.10975225887212" lon="0.7069870210607564"><ele>397.0</ele><time>2026-04-01T13:52:51Z</time></trkpt><trkpt lat="43.10960637078546" lon="0.7071828685763318"><ele>398.0</ele><time>2026-04-01T13:52:52Z</time></trkpt><trkpt lat="43.10948006053934" lon="0.707369518281407"><ele>398.0</ele><time>2026-04-01T13:52:53Z</time></trkpt><trkpt lat="43.10936125540652" lon="0.7075296956754573"><ele>398.0</ele><time>2026-04-01T13:52:54Z</time></trkpt><trkpt lat="43.10925300500042" lon="0.7076855506318842"><ele>398.0</ele><time>2026-04-01T13:52:55Z</time></trkpt><trkpt lat="43.10915725387577" lon="0.7078769629665511"><ele>399.66666666666663</ele><time>2026-04-01T13:52:56Z</time></trkpt><trkpt lat="43.10907715163476" lon="0.7081077593750738"><ele>401.33333333333337</ele><time>2026-04-01T13:52:57Z</time></trkpt><trkpt lat="43.10901631180214" lon="0.7083302093581405"><ele>403.0</ele><time>2026-04-01T13:52:58Z</time></trkpt><trkpt lat="43.10897940480165" lon="0.7085267727501283"><ele>404.0</ele><time>2026-04-01T13:52:59Z</time></trkpt><trkpt lat="43.10896334214691" lon="0.7086961477860337"><ele>405.0</ele><time>2026-04-01T13:53:00Z</time></trkpt><trkpt lat="43.108952674067936" lon="0.7088311405572545"><ele>406.0</ele><time>2026-04-01T13:53:01Z</time></trkpt><trkpt lat="43.10893777918563" lon="0.7089299462737096"><ele>407.0</ele><time>2026-04-01T13:53:02Z</time></trkpt><trkpt lat="43.108878756295574" lon="0.7090680081978107"><ele>408.0</ele><time>2026-04-01T13:53:04Z</time></trkpt><trkpt lat="43.10885800780441" lon="0.7091530215807874"><ele>408.0</ele><time>2026-04-01T13:53:05Z</time></trkpt><trkpt lat="43.10886353659767" lon="0.7092574789423608"><ele>408.0</ele><time>2026-04-01T13:53:06Z</time></trkpt><trkpt lat="43.10890160683504" lon="0.7093532178326176"><ele>408.0</ele><time>2026-04-01T13:53:07Z</time></trkpt><trkpt lat="43.10894901802684" lon="0.7094537330945915"><ele>408.0</ele><time>2026-04-01T13:53:08Z</time></trkpt><trkpt lat="43.10896549810163" lon="0.7095780572059796"><ele>408.0</ele><time>2026-04-01T13:53:09Z</time></trkpt><trkpt lat="43.108961364180644" lon="0.7097295296384944"><ele>408.0</ele><time>2026-04-01T13:53:10Z</time></trkpt><trkpt lat="43.10895714589574" lon="0.7098788241716015"><ele>408.5</ele><time>2026-04-01T13:53:11Z</time></trkpt><trkpt lat="43.10894674512862" lon="0.7100460456728012"><ele>409.0</ele><time>2026-04-01T13:53:12Z</time></trkpt><trkpt lat="43.10892994451437" lon="0.7102408940174266"><ele>409.5</ele><time>2026-04-01T13:53:13Z</time></trkpt><trkpt lat="43.10891299559393" lon="0.7104430849907314"><ele>410.0</ele><time>2026-04-01T13:53:14Z</time></trkpt><trkpt lat="43.108888538745575" lon="0.710646952336376"><ele>410.0</ele><time>2026-04-01T13:53:15Z</time></trkpt><trkpt lat="43.108859804125224" lon="0.7108359761749361"><ele>410.0</ele><time>2026-04-01T13:53:16Z</time></trkpt><trkpt lat="43.10882657167635" lon="0.711022263917095"><ele>410.0</ele><time>2026-04-01T13:53:17Z</time></trkpt><trkpt lat="43.108793647873" lon="0.7112027686004219"><ele>410.0</ele><time>2026-04-01T13:53:18Z</time></trkpt><trkpt lat="43.10876310849316" lon="0.7113676505073868"><ele>409.99999999999994</ele><time>2026-04-01T13:53:19Z</time></trkpt><trkpt lat="43.10873599906784" lon="0.7115107906423015"><ele>410.0</ele><time>2026-04-01T13:53:20Z</time></trkpt><trkpt lat="43.10871091093682" lon="0.7116334115081793"><ele>410.0</ele><time>2026-04-01T13:53:21Z</time></trkpt><trkpt lat="43.108690883697726" lon="0.7117380913131958"><ele>410.0</ele><time>2026-04-01T13:53:22Z</time></trkpt><trkpt lat="43.108673266795115" lon="0.7118274842527776"><ele>409.99999999999994</ele><time>2026-04-01T13:53:23Z</time></trkpt><trkpt lat="43.10865822413474" lon="0.7119169091671878"><ele>410.0</ele><time>2026-04-01T13:53:24Z</time></trkpt><trkpt lat="43.10864224776166" lon="0.7120069617026717"><ele>410.0</ele><time>2026-04-01T13:53:25Z</time></trkpt><trkpt lat="43.10862285851524" lon="0.7121027827320129"><ele>410.0</ele><time>2026-04-01T13:53:26Z</time></trkpt><trkpt lat="43.10860209831902" lon="0.7122053814711753"><ele>410.0</ele><time>2026-04-01T13:53:27Z</time></trkpt><trkpt lat="43.10857763947097" lon="0.7123325410562414"><ele>410.0</ele><time>2026-04-01T13:53:28Z</time></trkpt><trkpt lat="43.1085498355206" lon="0.7124797474946098"><ele>410.0</ele><time>2026-04-01T13:53:29Z</time></trkpt><trkpt lat="43.108520362688495" lon="0.7126400392938617"><ele>410.0</ele><time>2026-04-01T13:53:30Z</time></trkpt><trkpt lat="43.108489254725676" lon="0.7127972679569372"><ele>410.0</ele><time>2026-04-01T13:53:31Z</time></trkpt><trkpt lat="43.10846404880713" lon="0.7129426654074883"><ele>410.0</ele><time>2026-04-01T13:53:32Z</time></trkpt><trkpt lat="43.10843963622371" lon="0.7130823070187872"><ele>410.0</ele><time>2026-04-01T13:53:33Z</time></trkpt><trkpt lat="43.10841329791053" lon="0.713217869398929"><ele>410.0</ele><time>2026-04-01T13:53:34Z</time></trkpt><trkpt lat="43.108387372498626" lon="0.7133503878032421"><ele>410.0</ele><time>2026-04-01T13:53:35Z</time></trkpt><trkpt lat="43.1083597769293" lon="0.7134909367871357"><ele>410.0</ele><time>2026-04-01T13:53:36Z</time></trkpt><trkpt lat="43.10832520752965" lon="0.7136508056070912"><ele>410.0</ele><time>2026-04-01T13:53:37Z</time></trkpt><trkpt lat="43.10829448457608" lon="0.7137967530399179"><ele>410.0</ele><time>2026-04-01T13:53:38Z</time></trkpt><trkpt lat="43.10826953957139" lon="0.7139210025553603"><ele>410.0</ele><time>2026-04-01T13:53:39Z</time></trkpt><trkpt lat="43.10824482922608" lon="0.7140564360307818"><ele>410.0</ele><time>2026-04-01T13:53:40Z</time></trkpt><trkpt lat="43.1082172962097" lon="0.7141981600616633"><ele>410.0</ele><time>2026-04-01T13:53:41Z</time></trkpt><trkpt lat="43.10819334776377" lon="0.714338639763992"><ele>410.0</ele><time>2026-04-01T13:53:42Z</time></trkpt><trkpt lat="43.10816859309571" lon="0.7144786033250036"><ele>410.0</ele><time>2026-04-01T13:53:43Z</time></trkpt><trkpt lat="43.10814361179613" lon="0.7146177222930011"><ele>410.0</ele><time>2026-04-01T13:53:44Z</time></trkpt><trkpt lat="43.108116928385826" lon="0.7147516915851468"><ele>410.0</ele><time>2026-04-01T13:53:45Z</time></trkpt><trkpt lat="43.10808317222809" lon="0.7148792447117807"><ele>410.0</ele><time>2026-04-01T13:53:46Z</time></trkpt><trkpt lat="43.10804929885369" lon="0.7150016851162422"><ele>410.0</ele><time>2026-04-01T13:53:47Z</time></trkpt><trkpt lat="43.10802587036706" lon="0.7151294243206724"><ele>410.0</ele><time>2026-04-01T13:53:48Z</time></trkpt><trkpt lat="43.10800198219259" lon="0.7152577510547788"><ele>410.0</ele><time>2026-04-01T13:53:49Z</time></trkpt><trkpt lat="43.10797727607831" lon="0.7153813514290295"><ele>409.6</ele><time>2026-04-01T13:53:50Z</time></trkpt><trkpt lat="43.107949026775735" lon="0.7155059824030312"><ele>409.2</ele><time>2026-04-01T13:53:51Z</time></trkpt><trkpt lat="43.107925073424376" lon="0.7156320110959598"><ele>408.79999999999995</ele><time>2026-04-01T13:53:52Z</time></trkpt><trkpt lat="43.1079035501605" lon="0.7157609046774821"><ele>408.4</ele><time>2026-04-01T13:53:53Z</time></trkpt><trkpt lat="43.107882591478784" lon="0.7158750695835207"><ele>408.0</ele><time>2026-04-01T13:53:54Z</time></trkpt><trkpt lat="43.10785769274604" lon="0.7160180219889494"><ele>408.1666666666667</ele><time>2026-04-01T13:53:56Z</time></trkpt><trkpt lat="43.10785019485457" lon="0.7161251663179723"><ele>408.33333333333337</ele><time>2026-04-01T13:53:58Z</time></trkpt><trkpt lat="43.10782490238796" lon="0.7162301052832885"><ele>408.5</ele><time>2026-04-01T13:54:00Z</time></trkpt><trkpt lat="43.107791793254925" lon="0.7163499767811988"><ele>408.6666666666667</ele><time>2026-04-01T13:54:02Z</time></trkpt><trkpt lat="43.10779697118071" lon="0.7164441860534054"><ele>408.83333333333337</ele><time>2026-04-01T13:54:03Z</time></trkpt><trkpt lat="43.10776979272893" lon="0.7165521076673301"><ele>409.0</ele><time>2026-04-01T13:54:04Z</time></trkpt><trkpt lat="43.10775045978911" lon="0.7166885202089431"><ele>409.0</ele><time>2026-04-01T13:54:05Z</time></trkpt><trkpt lat="43.10772150343586" lon="0.7168242711499261"><ele>409.0</ele><time>2026-04-01T13:54:06Z</time></trkpt><trkpt lat="43.10770031314621" lon="0.7169688258017968"><ele>409.0</ele><time>2026-04-01T13:54:07Z</time></trkpt><trkpt lat="43.10767686736487" lon="0.7171012221835248"><ele>409.0</ele><time>2026-04-01T13:54:08Z</time></trkpt><trkpt lat="43.10765003946671" lon="0.717217976418592"><ele>409.0</ele><time>2026-04-01T13:54:09Z</time></trkpt><trkpt lat="43.107622046910706" lon="0.7173235673922923"><ele>409.00000000000006</ele><time>2026-04-01T13:54:10Z</time></trkpt><trkpt lat="43.10760394468428" lon="0.7174260497667366"><ele>409.0</ele><time>2026-04-01T13:54:11Z</time></trkpt><trkpt lat="43.107589768938624" lon="0.7175280218719448"><ele>409.0</ele><time>2026-04-01T13:54:12Z</time></trkpt><trkpt lat="43.107573436936846" lon="0.7176284227376737"><ele>409.0</ele><time>2026-04-01T13:54:13Z</time></trkpt><trkpt lat="43.10755489577023" lon="0.7177275912203215"><ele>409.00000000000006</ele><time>2026-04-01T13:54:14Z</time></trkpt><trkpt lat="43.10753644328163" lon="0.717825713871223"><ele>409.0</ele><time>2026-04-01T13:54:15Z</time></trkpt><trkpt lat="43.10751728446065" lon="0.717927384826929"><ele>409.00000000000006</ele><time>2026-04-01T13:54:16Z</time></trkpt><trkpt lat="43.10749943386496" lon="0.7180251655297671"><ele>409.0</ele><time>2026-04-01T13:54:17Z</time></trkpt><trkpt lat="43.10748219741707" lon="0.7181227194212431"><ele>409.0</ele><time>2026-04-01T13:54:18Z</time></trkpt><trkpt lat="43.107465513758136" lon="0.7182137663253799"><ele>409.0</ele><time>2026-04-01T13:54:19Z</time></trkpt><trkpt lat="43.107433435111936" lon="0.7183821083484001"><ele>409.00000000000006</ele><time>2026-04-01T13:54:21Z</time></trkpt><trkpt lat="43.107416212624194" lon="0.7184734491125503"><ele>409.0</ele><time>2026-04-01T13:54:22Z</time></trkpt><trkpt lat="43.10739798902685" lon="0.7185716703061614"><ele>408.85714285714283</ele><time>2026-04-01T13:54:23Z</time></trkpt><trkpt lat="43.10737815615492" lon="0.7186707209251747"><ele>408.7142857142857</ele><time>2026-04-01T13:54:24Z</time></trkpt><trkpt lat="43.10735676249364" lon="0.7187703965708708"><ele>408.57142857142856</ele><time>2026-04-01T13:54:25Z</time></trkpt><trkpt lat="43.107337819483085" lon="0.7188683236278941"><ele>408.42857142857144</ele><time>2026-04-01T13:54:26Z</time></trkpt><trkpt lat="43.10732130475724" lon="0.7189642384878094"><ele>408.28571428571433</ele><time>2026-04-01T13:54:27Z</time></trkpt><trkpt lat="43.107302244232486" lon="0.7190598934144766"><ele>408.14285714285717</ele><time>2026-04-01T13:54:28Z</time></trkpt><trkpt lat="43.10728167266232" lon="0.7191563638332729"><ele>408.0</ele><time>2026-04-01T13:54:29Z</time></trkpt><trkpt lat="43.10726412730064" lon="0.7192503332192182"><ele>408.0</ele><time>2026-04-01T13:54:30Z</time></trkpt><trkpt lat="43.1072497169448" lon="0.7193435875875804"><ele>408.0</ele><time>2026-04-01T13:54:31Z</time></trkpt><trkpt lat="43.10723118247218" lon="0.7194389398319027"><ele>408.0</ele><time>2026-04-01T13:54:32Z</time></trkpt><trkpt lat="43.107214464514485" lon="0.7195381526228204"><ele>408.0</ele><time>2026-04-01T13:54:33Z</time></trkpt><trkpt lat="43.10719472638635" lon="0.7196376695943736"><ele>408.0</ele><time>2026-04-01T13:54:34Z</time></trkpt><trkpt lat="43.107176854426655" lon="0.7197375327204283"><ele>408.0</ele><time>2026-04-01T13:54:35Z</time></trkpt><trkpt lat="43.107160015852415" lon="0.7198267673432337"><ele>408.0</ele><time>2026-04-01T13:54:36Z</time></trkpt><trkpt lat="43.10714651974846" lon="0.7199145278918563"><ele>408.0</ele><time>2026-04-01T13:54:37Z</time></trkpt><trkpt lat="43.1071057373136" lon="0.720068737664012"><ele>408.0</ele><time>2026-04-01T13:54:39Z</time></trkpt><trkpt lat="43.10706761577917" lon="0.7202120692252104"><ele>408.0</ele><time>2026-04-01T13:54:41Z</time></trkpt><trkpt lat="43.10703202079013" lon="0.7203358003967588"><ele>408.0</ele><time>2026-04-01T13:54:43Z</time></trkpt><trkpt lat="43.10702009852273" lon="0.7204511624046911"><ele>408.0</ele><time>2026-04-01T13:54:45Z</time></trkpt><trkpt lat="43.10700919920919" lon="0.7205390930110989"><ele>408.0</ele><time>2026-04-01T13:54:49Z</time></trkpt><trkpt lat="43.10698273484514" lon="0.7206466569321953"><ele>408.0</ele><time>2026-04-01T13:54:53Z</time></trkpt><trkpt lat="43.106921229141925" lon="0.7207216199667478"><ele>408.0</ele><time>2026-04-01T13:54:55Z</time></trkpt><trkpt lat="43.10685541764239" lon="0.7207750054823509"><ele>408.0</ele><time>2026-04-01T13:54:57Z</time></trkpt><trkpt lat="43.1067902116441" lon="0.7208482346563235"><ele>408.0</ele><time>2026-04-01T13:54:59Z</time></trkpt><trkpt lat="43.106680327783" lon="0.720919599260735"><ele>408.0</ele><time>2026-04-01T13:55:01Z</time></trkpt><trkpt lat="43.10661482094318" lon="0.7209615084945596"><ele>407.0</ele><time>2026-04-01T13:55:02Z</time></trkpt><trkpt lat="43.10652083603744" lon="0.721018016152065"><ele>406.0</ele><time>2026-04-01T13:55:03Z</time></trkpt><trkpt lat="43.10642450687428" lon="0.7210609196926459"><ele>405.0</ele><time>2026-04-01T13:55:04Z</time></trkpt><trkpt lat="43.106353645254984" lon="0.721159809164106"><ele>404.0</ele><time>2026-04-01T13:55:05Z</time></trkpt><trkpt lat="43.1063143995318" lon="0.7212829870542709"><ele>403.0</ele><time>2026-04-01T13:55:06Z</time></trkpt><trkpt lat="43.10629825948651" lon="0.7213974485581275"><ele>402.50000000000006</ele><time>2026-04-01T13:55:07Z</time></trkpt><trkpt lat="43.10627103136588" lon="0.7214952160087653"><ele>402.0</ele><time>2026-04-01T13:55:08Z</time></trkpt><trkpt lat="43.10624682842692" lon="0.7215999876280572"><ele>401.5</ele><time>2026-04-01T13:55:09Z</time></trkpt><trkpt lat="43.10622589188599" lon="0.7217132979363848"><ele>401.0</ele><time>2026-04-01T13:55:10Z</time></trkpt><trkpt lat="43.106217534631945" lon="0.7218349602402342"><ele>400.50000000000006</ele><time>2026-04-01T13:55:11Z</time></trkpt><trkpt lat="43.10621203945248" lon="0.7219607401005591"><ele>400.0</ele><time>2026-04-01T13:55:12Z</time></trkpt><trkpt lat="43.10620650553954" lon="0.722078724315547"><ele>398.6</ele><time>2026-04-01T13:55:13Z</time></trkpt><trkpt lat="43.10620715660957" lon="0.7221958497394757"><ele>397.2</ele><time>2026-04-01T13:55:14Z</time></trkpt><trkpt lat="43.1062186270894" lon="0.7223154438126245"><ele>395.79999999999995</ele><time>2026-04-01T13:55:15Z</time></trkpt><trkpt lat="43.10624164212158" lon="0.7224348948838957"><ele>394.4</ele><time>2026-04-01T13:55:16Z</time></trkpt><trkpt lat="43.10627457755918" lon="0.7225794638933989"><ele>393.0</ele><time>2026-04-01T13:55:17Z</time></trkpt><trkpt lat="43.106320379305515" lon="0.7227548504582019"><ele>392.0</ele><time>2026-04-01T13:55:18Z</time></trkpt><trkpt lat="43.1063623398594" lon="0.7229120519431734"><ele>391.0</ele><time>2026-04-01T13:55:19Z</time></trkpt><trkpt lat="43.106403092552725" lon="0.7230874286668095"><ele>390.0</ele><time>2026-04-01T13:55:20Z</time></trkpt><trkpt lat="43.10644325960101" lon="0.7232498394260535"><ele>389.0</ele><time>2026-04-01T13:55:21Z</time></trkpt><trkpt lat="43.106480375556266" lon="0.7234089785766135"><ele>387.75</ele><time>2026-04-01T13:55:22Z</time></trkpt><trkpt lat="43.10651433634676" lon="0.7235694866291282"><ele>386.5</ele><time>2026-04-01T13:55:23Z</time></trkpt><trkpt lat="43.10654954350378" lon="0.7237213875996552"><ele>385.25</ele><time>2026-04-01T13:55:24Z</time></trkpt><trkpt lat="43.106582911858595" lon="0.723870919045238"><ele>384.0</ele><time>2026-04-01T13:55:25Z</time></trkpt><trkpt lat="43.10661289631559" lon="0.7240164357632934"><ele>386.0</ele><time>2026-04-01T13:55:26Z</time></trkpt><trkpt lat="43.106635619208824" lon="0.7241616217272079"><ele>388.0</ele><time>2026-04-01T13:55:27Z</time></trkpt><trkpt lat="43.10665171953656" lon="0.7243030208174346"><ele>390.0</ele><time>2026-04-01T13:55:28Z</time></trkpt><trkpt lat="43.106664928082466" lon="0.7244433854722109"><ele>392.0</ele><time>2026-04-01T13:55:29Z</time></trkpt><trkpt lat="43.106670742501585" lon="0.7245808889409603"><ele>394.0</ele><time>2026-04-01T13:55:30Z</time></trkpt><trkpt lat="43.1066608317122" lon="0.7247151889159013"><ele>394.0</ele><time>2026-04-01T13:55:31Z</time></trkpt><trkpt lat="43.1066321652121" lon="0.7248403998899815"><ele>394.0</ele><time>2026-04-01T13:55:32Z</time></trkpt><trkpt lat="43.10658917438557" lon="0.7249519494104874"><ele>394.0</ele><time>2026-04-01T13:55:33Z</time></trkpt><trkpt lat="43.106526564810174" lon="0.7250382211101426"><ele>394.0</ele><time>2026-04-01T13:55:34Z</time></trkpt><trkpt lat="43.106528438740874" lon="0.7251648140403452"><ele>394.0</ele><time>2026-04-01T13:55:35Z</time></trkpt><trkpt lat="43.106537297952414" lon="0.725277962663409"><ele>392.4</ele><time>2026-04-01T13:55:36Z</time></trkpt><trkpt lat="43.10656215901982" lon="0.7253721919331306"><ele>390.79999999999995</ele><time>2026-04-01T13:55:37Z</time></trkpt><trkpt lat="43.10660062941867" lon="0.725449283615844"><ele>389.20000000000005</ele><time>2026-04-01T13:55:38Z</time></trkpt><trkpt lat="43.10668503325562" lon="0.7255322441931914"><ele>387.6</ele><time>2026-04-01T13:55:40Z</time></trkpt><trkpt lat="43.106787882333826" lon="0.7256167646369401"><ele>386.0</ele><time>2026-04-01T13:55:42Z</time></trkpt><trkpt lat="43.10686456608889" lon="0.7256791177302971"><ele>386.0</ele><time>2026-04-01T13:55:43Z</time></trkpt><trkpt lat="43.1069362686011" lon="0.7257689452498867"><ele>386.0</ele><time>2026-04-01T13:55:44Z</time></trkpt><trkpt lat="43.10700696327002" lon="0.7258694162318313"><ele>386.0</ele><time>2026-04-01T13:55:45Z</time></trkpt><trkpt lat="43.10708688654023" lon="0.7259614317858356"><ele>386.0</ele><time>2026-04-01T13:55:46Z</time></trkpt><trkpt lat="43.107159950451" lon="0.7260725732945875"><ele>386.0</ele><time>2026-04-01T13:55:47Z</time></trkpt><trkpt lat="43.10721839393466" lon="0.7262068794477597"><ele>384.75</ele><time>2026-04-01T13:55:48Z</time></trkpt><trkpt lat="43.107282715386134" lon="0.7263368225370793"><ele>383.5</ele><time>2026-04-01T13:55:49Z</time></trkpt><trkpt lat="43.10735779470493" lon="0.7264532229419568"><ele>382.25</ele><time>2026-04-01T13:55:50Z</time></trkpt><trkpt lat="43.107437540293475" lon="0.7265592909716381"><ele>381.0</ele><time>2026-04-01T13:55:51Z</time></trkpt><trkpt lat="43.10754027683716" lon="0.7266159721914097"><ele>383.8</ele><time>2026-04-01T13:55:52Z</time></trkpt><trkpt lat="43.107653455926226" lon="0.7266255276866564"><ele>386.6</ele><time>2026-04-01T13:55:53Z</time></trkpt><trkpt lat="43.107764472179234" lon="0.7266188286204801"><ele>389.4</ele><time>2026-04-01T13:55:54Z</time></trkpt><trkpt lat="43.10786036691694" lon="0.7265982934930926"><ele>392.2</ele><time>2026-04-01T13:55:55Z</time></trkpt><trkpt lat="43.107941222319894" lon="0.7266087515371427"><ele>395.0</ele><time>2026-04-01T13:55:57Z</time></trkpt><trkpt lat="43.1078476535098" lon="0.7263813827803804"><ele>395.0</ele><time>2026-04-01T13:56:01Z</time></trkpt><trkpt lat="43.107801410946514" lon="0.7263206510505267"><ele>395.0</ele><time>2026-04-01T13:56:05Z</time></trkpt><trkpt lat="43.1077224442518" lon="0.7262936809733114"><ele>395.0</ele><time>2026-04-01T13:56:07Z</time></trkpt><trkpt lat="43.10763693003981" lon="0.7263745797292749"><ele>395.0</ele><time>2026-04-01T13:56:08Z</time></trkpt><trkpt lat="43.107554357303954" lon="0.7263460401987101"><ele>395.0</ele><time>2026-04-01T13:56:09Z</time></trkpt><trkpt lat="43.10754755559383" lon="0.7261085726119065"><ele>396.3333333333333</ele><time>2026-04-01T13:56:10Z</time></trkpt><trkpt lat="43.10746621937735" lon="0.7260167834768629"><ele>397.66666666666663</ele><time>2026-04-01T13:56:12Z</time></trkpt><trkpt lat="43.107408528192686" lon="0.7259174531925081"><ele>399.0</ele><time>2026-04-01T13:56:14Z</time></trkpt><trkpt lat="43.107366236109534" lon="0.7258215080691807"><ele>400.33333333333337</ele><time>2026-04-01T13:56:16Z</time></trkpt><trkpt lat="43.107333745107915" lon="0.7257324398070029"><ele>401.6666666666667</ele><time>2026-04-01T13:56:18Z</time></trkpt><trkpt lat="43.10730316476415" lon="0.7256534884829073"><ele>403.0</ele><time>2026-04-01T13:56:20Z</time></trkpt><trkpt lat="43.10726218952728" lon="0.7255429579769753"><ele>401.2</ele><time>2026-04-01T13:56:23Z</time></trkpt><trkpt lat="43.10723301628006" lon="0.725456667974037"><ele>399.4</ele><time>2026-04-01T13:56:25Z</time></trkpt><trkpt lat="43.10720704581157" lon="0.7253297612634654"><ele>397.59999999999997</ele><time>2026-04-01T13:56:27Z</time></trkpt><trkpt lat="43.10719227680785" lon="0.7252074365318438"><ele>395.79999999999995</ele><time>2026-04-01T13:56:29Z</time></trkpt><trkpt lat="43.10716357755688" lon="0.7250796260587324"><ele>394.0</ele><time>2026-04-01T13:56:31Z</time></trkpt><trkpt lat="43.10712095258103" lon="0.7249585524343465"><ele>394.0</ele><time>2026-04-01T13:56:33Z</time></trkpt><trkpt lat="43.10706715230001" lon="0.7248279413115998"><ele>394.0</ele><time>2026-04-01T13:56:35Z</time></trkpt><trkpt lat="43.10701474854425" lon="0.7246858430880059"><ele>394.0</ele><time>2026-04-01T13:56:37Z</time></trkpt><trkpt lat="43.10698604066402" lon="0.7245532481484278"><ele>394.0</ele><time>2026-04-01T13:56:39Z</time></trkpt><trkpt lat="43.10695582259894" lon="0.7244162892829488"><ele>394.0</ele><time>2026-04-01T13:56:41Z</time></trkpt><trkpt lat="43.10691527587194" lon="0.7242828633882727"><ele>394.79999999999995</ele><time>2026-04-01T13:56:43Z</time></trkpt><trkpt lat="43.10687472255242" lon="0.7241491004739269"><ele>395.59999999999997</ele><time>2026-04-01T13:56:45Z</time></trkpt><trkpt lat="43.10684761049855" lon="0.7240127920968251"><ele>396.4</ele><time>2026-04-01T13:56:47Z</time></trkpt><trkpt lat="43.106816395818036" lon="0.7238679931881403"><ele>397.2</ele><time>2026-04-01T13:56:49Z</time></trkpt><trkpt lat="43.106787647992434" lon="0.7237262368685204"><ele>398.0</ele><time>2026-04-01T13:56:51Z</time></trkpt><trkpt lat="43.10676619988369" lon="0.7236425141357106"><ele>399.5</ele><time>2026-04-01T13:56:52Z</time></trkpt><trkpt lat="43.10672730093242" lon="0.7235096477963759"><ele>401.0</ele><time>2026-04-01T13:56:54Z</time></trkpt><trkpt lat="43.10667683210082" lon="0.7232861419404506"><ele>402.5</ele><time>2026-04-01T13:56:57Z</time></trkpt><trkpt lat="43.106638390856155" lon="0.7231544443889782"><ele>404.0</ele><time>2026-04-01T13:56:59Z</time></trkpt><trkpt lat="43.10659435708108" lon="0.7230064980912548"><ele>402.16666666666663</ele><time>2026-04-01T13:57:01Z</time></trkpt><trkpt lat="43.10655460934599" lon="0.722851585299815"><ele>400.3333333333333</ele><time>2026-04-01T13:57:03Z</time></trkpt><trkpt lat="43.10653498142909" lon="0.7227677081442946"><ele>398.5</ele><time>2026-04-01T13:57:04Z</time></trkpt><trkpt lat="43.106490144283384" lon="0.7226059197184097"><ele>396.66666666666663</ele><time>2026-04-01T13:57:06Z</time></trkpt><trkpt lat="43.10646768585788" lon="0.7225242544129498"><ele>394.8333333333333</ele><time>2026-04-01T13:57:07Z</time></trkpt><trkpt lat="43.10644485812321" lon="0.7224405978050782"><ele>393.0</ele><time>2026-04-01T13:57:08Z</time></trkpt><trkpt lat="43.10640470386364" lon="0.7222922534569434"><ele>393.0</ele><time>2026-04-01T13:57:10Z</time></trkpt><trkpt lat="43.106363078271755" lon="0.7221517198843792"><ele>393.0</ele><time>2026-04-01T13:57:12Z</time></trkpt><trkpt lat="43.10631833521376" lon="0.7220738395134133"><ele>393.0</ele><time>2026-04-01T13:57:14Z</time></trkpt><trkpt lat="43.106251781622724" lon="0.7220707864210383"><ele>393.0</ele><time>2026-04-01T13:57:17Z</time></trkpt><trkpt lat="43.10619855138838" lon="0.7221698634877606"><ele>393.0</ele><time>2026-04-01T13:57:25Z</time></trkpt><trkpt lat="43.10622663923138" lon="0.7222744580131627"><ele>393.0</ele><time>2026-04-01T13:57:26Z</time></trkpt><trkpt lat="43.10623849976583" lon="0.7223941955577627"><ele>393.0</ele><time>2026-04-01T13:57:27Z</time></trkpt><trkpt lat="43.10625469571242" lon="0.7225437910315188"><ele>393.0</ele><time>2026-04-01T13:57:28Z</time></trkpt><trkpt lat="43.10629060447211" lon="0.7227083108685155"><ele>393.0</ele><time>2026-04-01T13:57:29Z</time></trkpt><trkpt lat="43.106336779118074" lon="0.7228891395532053"><ele>393.0</ele><time>2026-04-01T13:57:30Z</time></trkpt><trkpt lat="43.106373619802206" lon="0.7230829666502512"><ele>392.0</ele><time>2026-04-01T13:57:31Z</time></trkpt><trkpt lat="43.10641206169493" lon="0.7232603167821917"><ele>391.0</ele><time>2026-04-01T13:57:32Z</time></trkpt><trkpt lat="43.10645412728392" lon="0.7234321267220042"><ele>390.0</ele><time>2026-04-01T13:57:33Z</time></trkpt><trkpt lat="43.10649146433273" lon="0.7236013808619858"><ele>389.0</ele><time>2026-04-01T13:57:34Z</time></trkpt><trkpt lat="43.10653330128437" lon="0.7237936899882923"><ele>387.75</ele><time>2026-04-01T13:57:35Z</time></trkpt><trkpt lat="43.10656946511511" lon="0.7239716141287362"><ele>386.5</ele><time>2026-04-01T13:57:36Z</time></trkpt><trkpt lat="43.106598824008" lon="0.7241545834436731"><ele>385.25</ele><time>2026-04-01T13:57:37Z</time></trkpt><trkpt lat="43.10661962310796" lon="0.7243348730984318"><ele>384.0</ele><time>2026-04-01T13:57:38Z</time></trkpt><trkpt lat="43.10662841528848" lon="0.7245095569739989"><ele>383.75</ele><time>2026-04-01T13:57:39Z</time></trkpt><trkpt lat="43.106620637238" lon="0.7246794807577954"><ele>383.5</ele><time>2026-04-01T13:57:40Z</time></trkpt><trkpt lat="43.10658665835856" lon="0.7248318186245577"><ele>383.25</ele><time>2026-04-01T13:57:41Z</time></trkpt><trkpt lat="43.10652309886296" lon="0.7249620750471032"><ele>383.0</ele><time>2026-04-01T13:57:42Z</time></trkpt><trkpt lat="43.10643471069119" lon="0.7250607926566094"><ele>383.0</ele><time>2026-04-01T13:57:43Z</time></trkpt><trkpt lat="43.10632595470338" lon="0.7251478772187155"><ele>383.0</ele><time>2026-04-01T13:57:44Z</time></trkpt><trkpt lat="43.10620146792821" lon="0.7252499424065135"><ele>383.0</ele><time>2026-04-01T13:57:45Z</time></trkpt><trkpt lat="43.10609487505354" lon="0.7253625321713993"><ele>383.0</ele><time>2026-04-01T13:57:46Z</time></trkpt><trkpt lat="43.10598441629924" lon="0.7255052897924396"><ele>382.25</ele><time>2026-04-01T13:57:47Z</time></trkpt><trkpt lat="43.10584351251525" lon="0.7255934927371819"><ele>381.5</ele><time>2026-04-01T13:57:48Z</time></trkpt><trkpt lat="43.10572398278923" lon="0.7257110805466132"><ele>380.75</ele><time>2026-04-01T13:57:49Z</time></trkpt><trkpt lat="43.10559496983086" lon="0.7258051573834161"><ele>380.0</ele><time>2026-04-01T13:57:50Z</time></trkpt><trkpt lat="43.10544766118407" lon="0.7259398226664961"><ele>379.25</ele><time>2026-04-01T13:57:51Z</time></trkpt><trkpt lat="43.10531727993642" lon="0.7260519617834089"><ele>378.5</ele><time>2026-04-01T13:57:52Z</time></trkpt><trkpt lat="43.10519887327244" lon="0.7261484800892769"><ele>377.75</ele><time>2026-04-01T13:57:53Z</time></trkpt><trkpt lat="43.105079435064766" lon="0.7262360187105151"><ele>377.0</ele><time>2026-04-01T13:57:54Z</time></trkpt><trkpt lat="43.10496007124386" lon="0.7263171097932638"><ele>377.0</ele><time>2026-04-01T13:57:55Z</time></trkpt><trkpt lat="43.10484477016222" lon="0.7263838636839234"><ele>377.0</ele><time>2026-04-01T13:57:56Z</time></trkpt><trkpt lat="43.10472345846637" lon="0.7264342766947307"><ele>377.0</ele><time>2026-04-01T13:57:57Z</time></trkpt><trkpt lat="43.10458602590022" lon="0.7264739547653879"><ele>377.0</ele><time>2026-04-01T13:57:58Z</time></trkpt><trkpt lat="43.1044388491699" lon="0.7265051869280816"><ele>377.0</ele><time>2026-04-01T13:57:59Z</time></trkpt><trkpt lat="43.10429094338941" lon="0.7265270789365798"><ele>377.0</ele><time>2026-04-01T13:58:00Z</time></trkpt><trkpt lat="43.10414712380843" lon="0.7265350925443838"><ele>377.0</ele><time>2026-04-01T13:58:01Z</time></trkpt><trkpt lat="43.103997344758746" lon="0.7265337317881186"><ele>377.0</ele><time>2026-04-01T13:58:02Z</time></trkpt><trkpt lat="43.10384497773297" lon="0.7265284920442139"><ele>376.5</ele><time>2026-04-01T13:58:03Z</time></trkpt><trkpt lat="43.103694501029345" lon="0.7265285260944861"><ele>376.0</ele><time>2026-04-01T13:58:04Z</time></trkpt><trkpt lat="43.103554278185115" lon="0.726539230466898"><ele>375.5</ele><time>2026-04-01T13:58:05Z</time></trkpt><trkpt lat="43.103421188306946" lon="0.7265478719275106"><ele>375.0</ele><time>2026-04-01T13:58:06Z</time></trkpt><trkpt lat="43.10329050528849" lon="0.726548182592892"><ele>374.4</ele><time>2026-04-01T13:58:07Z</time></trkpt><trkpt lat="43.10316530584311" lon="0.7265503511385943"><ele>373.8</ele><time>2026-04-01T13:58:08Z</time></trkpt><trkpt lat="43.103051670241776" lon="0.7265581307887442"><ele>373.20000000000005</ele><time>2026-04-01T13:58:09Z</time></trkpt><trkpt lat="43.102960516827" lon="0.7265726573651295"><ele>372.6</ele><time>2026-04-01T13:58:10Z</time></trkpt><trkpt lat="43.1028944846242" lon="0.7265988866298889"><ele>372.0</ele><time>2026-04-01T13:58:11Z</time></trkpt><trkpt lat="43.10281890277097" lon="0.7266545400404263"><ele>372.5</ele><time>2026-04-01T13:58:13Z</time></trkpt><trkpt lat="43.10294303031314" lon="0.7269080566886336"><ele>373.0</ele><time>2026-04-01T13:58:16Z</time></trkpt><trkpt lat="43.102987624599784" lon="0.7270267501358295"><ele>373.5</ele><time>2026-04-01T13:58:17Z</time></trkpt><trkpt lat="43.1030138879328" lon="0.7271846583307455"><ele>374.0</ele><time>2026-04-01T13:58:18Z</time></trkpt><trkpt lat="43.10305069937314" lon="0.7273458180979329"><ele>374.0</ele><time>2026-04-01T13:58:19Z</time></trkpt><trkpt lat="43.1031045775836" lon="0.7274757485232501"><ele>374.0</ele><time>2026-04-01T13:58:20Z</time></trkpt><trkpt lat="43.10315950597805" lon="0.7275875617695879"><ele>374.0</ele><time>2026-04-01T13:58:21Z</time></trkpt><trkpt lat="43.10321075177611" lon="0.727682445866477"><ele>374.0</ele><time>2026-04-01T13:58:22Z</time></trkpt><trkpt lat="43.103252451956905" lon="0.7277525616616984"><ele>374.0</ele><time>2026-04-01T13:58:23Z</time></trkpt><trkpt lat="43.103295716435866" lon="0.7278493110923406"><ele>374.0</ele><time>2026-04-01T13:58:25Z</time></trkpt><trkpt lat="43.103243796045206" lon="0.7279177952746417"><ele>374.0</ele><time>2026-04-01T13:58:32Z</time></trkpt><trkpt lat="43.103190809561816" lon="0.7279856325219374"><ele>374.0</ele><time>2026-04-01T13:58:33Z</time></trkpt><trkpt lat="43.103141996714385" lon="0.7280513135047082"><ele>374.0</ele><time>2026-04-01T13:58:34Z</time></trkpt><trkpt lat="43.10308608456136" lon="0.728128212719157"><ele>374.0</ele><time>2026-04-01T13:58:35Z</time></trkpt><trkpt lat="43.10303022226681" lon="0.72821250463944"><ele>374.0</ele><time>2026-04-01T13:58:36Z</time></trkpt><trkpt lat="43.10297310146103" lon="0.7283010473902369"><ele>374.0</ele><time>2026-04-01T13:58:37Z</time></trkpt><trkpt lat="43.10290524092468" lon="0.7284082325208832"><ele>374.0</ele><time>2026-04-01T13:58:38Z</time></trkpt><trkpt lat="43.102847558055835" lon="0.7284970212757281"><ele>374.0</ele><time>2026-04-01T13:58:39Z</time></trkpt><trkpt lat="43.10279469981995" lon="0.7285746078206619"><ele>374.0</ele><time>2026-04-01T13:58:40Z</time></trkpt><trkpt lat="43.10274441302895" lon="0.7286468532916022"><ele>374.0</ele><time>2026-04-01T13:58:41Z</time></trkpt><trkpt lat="43.10269934191404" lon="0.728711605567838"><ele>374.0</ele><time>2026-04-01T13:58:42Z</time></trkpt><trkpt lat="43.10265274231498" lon="0.7288032785833428"><ele>374.0</ele><time>2026-04-01T13:58:43Z</time></trkpt><trkpt lat="43.1025721605497" lon="0.728889455172169"><ele>373.6</ele><time>2026-04-01T13:58:44Z</time></trkpt><trkpt lat="43.1025044134977" lon="0.7289882888248738"><ele>373.2</ele><time>2026-04-01T13:58:45Z</time></trkpt><trkpt lat="43.10243860234691" lon="0.729090252401963"><ele>372.8</ele><time>2026-04-01T13:58:46Z</time></trkpt><trkpt lat="43.102378571987316" lon="0.72919664143444"><ele>372.40000000000003</ele><time>2026-04-01T13:58:47Z</time></trkpt><trkpt lat="43.10234039852124" lon="0.729315654330689"><ele>372.0</ele><time>2026-04-01T13:58:48Z</time></trkpt><trkpt lat="43.10229134113612" lon="0.729409477279668"><ele>370.6666666666667</ele><time>2026-04-01T13:58:49Z</time></trkpt><trkpt lat="43.1022479401121" lon="0.7294959001523111"><ele>369.3333333333333</ele><time>2026-04-01T13:58:50Z</time></trkpt><trkpt lat="43.10220093678395" lon="0.7295720187221211"><ele>368.0</ele><time>2026-04-01T13:58:51Z</time></trkpt><trkpt lat="43.1021400410877" lon="0.7296349594321587"><ele>366.66666666666663</ele><time>2026-04-01T13:58:53Z</time></trkpt><trkpt lat="43.10220657257659" lon="0.7297466774242236"><ele>365.3333333333333</ele><time>2026-04-01T13:58:54Z</time></trkpt><trkpt lat="43.10210079780989" lon="0.7297187158524348"><ele>364.0</ele><time>2026-04-01T13:59:02Z</time></trkpt><trkpt lat="43.10201651498669" lon="0.7297664812493774"><ele>364.0</ele><time>2026-04-01T13:59:03Z</time></trkpt><trkpt lat="43.101934478729866" lon="0.7298528434993989"><ele>364.0</ele><time>2026-04-01T13:59:04Z</time></trkpt><trkpt lat="43.1018400306847" lon="0.7299288938964086"><ele>364.0</ele><time>2026-04-01T13:59:05Z</time></trkpt><trkpt lat="43.10174932018269" lon="0.7299970698208581"><ele>364.0</ele><time>2026-04-01T13:59:06Z</time></trkpt><trkpt lat="43.10166126913696" lon="0.7300588583650922"><ele>364.0</ele><time>2026-04-01T13:59:07Z</time></trkpt><trkpt lat="43.1015687319665" lon="0.7300994606908245"><ele>364.0</ele><time>2026-04-01T13:59:08Z</time></trkpt><trkpt lat="43.10148359595692" lon="0.7301384323500296"><ele>364.0</ele><time>2026-04-01T13:59:09Z</time></trkpt><trkpt lat="43.101406089959816" lon="0.7301714675796203"><ele>364.0</ele><time>2026-04-01T13:59:10Z</time></trkpt><trkpt lat="43.101333937422865" lon="0.7301972155152799"><ele>364.0</ele><time>2026-04-01T13:59:11Z</time></trkpt><trkpt lat="43.10127217465001" lon="0.7302150505356759"><ele>364.0</ele><time>2026-04-01T13:59:12Z</time></trkpt><trkpt lat="43.10122199088476" lon="0.7302672276840673"><ele>364.0</ele><time>2026-04-01T13:59:14Z</time></trkpt><trkpt lat="43.10114467897218" lon="0.7303172405067846"><ele>363.66666666666663</ele><time>2026-04-01T13:59:21Z</time></trkpt><trkpt lat="43.101178892853206" lon="0.7302221971628231"><ele>363.3333333333333</ele><time>2026-04-01T13:59:29Z</time></trkpt><trkpt lat="43.10115264258688" lon="0.7301247383370717"><ele>363.0</ele><time>2026-04-01T13:59:31Z</time></trkpt><trkpt lat="43.10114988064473" lon="0.7300166846802352"><ele>362.6666666666667</ele><time>2026-04-01T13:59:34Z</time></trkpt><trkpt lat="43.10113837430769" lon="0.7299201435901628"><ele>362.33333333333337</ele><time>2026-04-01T13:59:38Z</time></trkpt><trkpt lat="43.101167227615456" lon="0.7300146919157072"><ele>362.0</ele><time>2026-04-01T14:01:33Z</time></trkpt><trkpt lat="43.101112239231185" lon="0.7298641809807569"><ele>362.0</ele><time>2026-04-01T14:01:39Z</time></trkpt><trkpt lat="43.1010780284886" lon="0.7297132103732414"><ele>362.0</ele><time>2026-04-01T14:01:40Z</time></trkpt><trkpt lat="43.101054462121695" lon="0.7295835670976564"><ele>362.0</ele><time>2026-04-01T14:01:41Z</time></trkpt><trkpt lat="43.10103418662561" lon="0.7294385848727797"><ele>362.0</ele><time>2026-04-01T14:01:42Z</time></trkpt><trkpt lat="43.101007459487505" lon="0.7293156087352224"><ele>362.0</ele><time>2026-04-01T14:01:43Z</time></trkpt><trkpt lat="43.10097470387914" lon="0.729214572840991"><ele>362.0</ele><time>2026-04-01T14:01:44Z</time></trkpt><trkpt lat="43.100936453181795" lon="0.7291163113457699"><ele>362.0</ele><time>2026-04-01T14:01:45Z</time></trkpt><trkpt lat="43.100894853572676" lon="0.7289902997251329"><ele>362.0</ele><time>2026-04-01T14:01:46Z</time></trkpt><trkpt lat="43.100856702140135" lon="0.7288534124108038"><ele>362.0</ele><time>2026-04-01T14:01:47Z</time></trkpt><trkpt lat="43.100824139339124" lon="0.7287360294917565"><ele>362.0</ele><time>2026-04-01T14:01:48Z</time></trkpt><trkpt lat="43.10077324390158" lon="0.7286479331284033"><ele>361.6666666666667</ele><time>2026-04-01T14:01:49Z</time></trkpt><trkpt lat="43.100702495827434" lon="0.7286015751644064"><ele>361.33333333333337</ele><time>2026-04-01T14:01:50Z</time></trkpt><trkpt lat="43.10062658529549" lon="0.7286047207552125"><ele>361.0</ele><time>2026-04-01T14:01:51Z</time></trkpt><trkpt lat="43.10056361898561" lon="0.7286523842029585"><ele>360.6666666666667</ele><time>2026-04-01T14:01:52Z</time></trkpt><trkpt lat="43.10051943587322" lon="0.7287368460726753"><ele>360.3333333333333</ele><time>2026-04-01T14:01:53Z</time></trkpt><trkpt lat="43.10050050808631" lon="0.7288582858826256"><ele>360.0</ele><time>2026-04-01T14:01:54Z</time></trkpt><trkpt lat="43.10051847562194" lon="0.7290072075202988"><ele>360.0</ele><time>2026-04-01T14:01:55Z</time></trkpt><trkpt lat="43.10047065579836" lon="0.7291971187355943"><ele>360.0</ele><time>2026-04-01T14:01:56Z</time></trkpt><trkpt lat="43.10039434423392" lon="0.7293963397583566"><ele>360.0</ele><time>2026-04-01T14:01:57Z</time></trkpt><trkpt lat="43.10030845975576" lon="0.729597974632929"><ele>360.6666666666667</ele><time>2026-04-01T14:01:58Z</time></trkpt><trkpt lat="43.100228312871856" lon="0.7298012770593408"><ele>361.33333333333337</ele><time>2026-04-01T14:01:59Z</time></trkpt><trkpt lat="43.10015001564798" lon="0.7300238172764164"><ele>362.0</ele><time>2026-04-01T14:02:00Z</time></trkpt><trkpt lat="43.10006549087718" lon="0.7302576981907144"><ele>362.0</ele><time>2026-04-01T14:02:01Z</time></trkpt><trkpt lat="43.09997445650689" lon="0.730495078363772"><ele>362.0</ele><time>2026-04-01T14:02:02Z</time></trkpt><trkpt lat="43.09988526810634" lon="0.7307368184687573"><ele>362.0</ele><time>2026-04-01T14:02:03Z</time></trkpt><trkpt lat="43.09979478162571" lon="0.7309726978781956"><ele>361.33333333333337</ele><time>2026-04-01T14:02:04Z</time></trkpt><trkpt lat="43.09970042865495" lon="0.7311861198042873"><ele>360.6666666666667</ele><time>2026-04-01T14:02:05Z</time></trkpt><trkpt lat="43.09960547196554" lon="0.731381371719052"><ele>360.0</ele><time>2026-04-01T14:02:06Z</time></trkpt><trkpt lat="43.09951119149676" lon="0.7315662371610014"><ele>360.0</ele><time>2026-04-01T14:02:07Z</time></trkpt><trkpt lat="43.099416645305226" lon="0.7317365062430972"><ele>360.0</ele><time>2026-04-01T14:02:08Z</time></trkpt><trkpt lat="43.099318741150626" lon="0.7319041228765247"><ele>360.0</ele><time>2026-04-01T14:02:09Z</time></trkpt><trkpt lat="43.09922025754544" lon="0.7320655039459528"><ele>359.6666666666667</ele><time>2026-04-01T14:02:10Z</time></trkpt><trkpt lat="43.09912026881324" lon="0.7322245125807924"><ele>359.33333333333337</ele><time>2026-04-01T14:02:11Z</time></trkpt><trkpt lat="43.09901965117367" lon="0.7323856026733498"><ele>359.0</ele><time>2026-04-01T14:02:12Z</time></trkpt><trkpt lat="43.09892053124661" lon="0.7325450711419041"><ele>358.75</ele><time>2026-04-01T14:02:13Z</time></trkpt><trkpt lat="43.09882141079493" lon="0.7327017074700335"><ele>358.5</ele><time>2026-04-01T14:02:14Z</time></trkpt><trkpt lat="43.09872511413811" lon="0.7328444854310748"><ele>358.25</ele><time>2026-04-01T14:02:15Z</time></trkpt><trkpt lat="43.09863500776378" lon="0.7329827688711773"><ele>358.0</ele><time>2026-04-01T14:02:16Z</time></trkpt><trkpt lat="43.098553665335054" lon="0.7331157332347519"><ele>358.0</ele><time>2026-04-01T14:02:17Z</time></trkpt><trkpt lat="43.09847531073855" lon="0.7332395192535485"><ele>358.0</ele><time>2026-04-01T14:02:18Z</time></trkpt><trkpt lat="43.098401241562456" lon="0.7333562857000684"><ele>358.0</ele><time>2026-04-01T14:02:19Z</time></trkpt><trkpt lat="43.09833132850955" lon="0.7334672270870922"><ele>358.0</ele><time>2026-04-01T14:02:20Z</time></trkpt><trkpt lat="43.098265151840636" lon="0.7335687995090749"><ele>358.0</ele><time>2026-04-01T14:02:21Z</time></trkpt><trkpt lat="43.09819449683361" lon="0.7336655488724956"><ele>357.5</ele><time>2026-04-01T14:02:22Z</time></trkpt><trkpt lat="43.098112800504" lon="0.7337677571316684"><ele>357.0</ele><time>2026-04-01T14:02:23Z</time></trkpt><trkpt lat="43.09802417726367" lon="0.7338723819345246"><ele>356.5</ele><time>2026-04-01T14:02:24Z</time></trkpt><trkpt lat="43.0979314569365" lon="0.7339688339272056"><ele>356.0</ele><time>2026-04-01T14:02:25Z</time></trkpt><trkpt lat="43.097845506605964" lon="0.734056371299314"><ele>356.0</ele><time>2026-04-01T14:02:26Z</time></trkpt><trkpt lat="43.09776389646326" lon="0.7341398714484171"><ele>356.0</ele><time>2026-04-01T14:02:27Z</time></trkpt><trkpt lat="43.097684946121305" lon="0.7342197018172405"><ele>356.0</ele><time>2026-04-01T14:02:28Z</time></trkpt><trkpt lat="43.097604854379966" lon="0.7342970769832631"><ele>356.0</ele><time>2026-04-01T14:02:29Z</time></trkpt><trkpt lat="43.09752666870638" lon="0.734370670609025"><ele>356.0</ele><time>2026-04-01T14:02:30Z</time></trkpt><trkpt lat="43.097444385538516" lon="0.7344463031295582"><ele>356.4</ele><time>2026-04-01T14:02:31Z</time></trkpt><trkpt lat="43.097360277693504" lon="0.734519702088462"><ele>356.8</ele><time>2026-04-01T14:02:32Z</time></trkpt><trkpt lat="43.09727840076224" lon="0.7345860649343555"><ele>357.2</ele><time>2026-04-01T14:02:33Z</time></trkpt><trkpt lat="43.097196615901865" lon="0.7346498715339721"><ele>357.59999999999997</ele><time>2026-04-01T14:02:34Z</time></trkpt><trkpt lat="43.09711441966668" lon="0.7347149494125869"><ele>358.0</ele><time>2026-04-01T14:02:35Z</time></trkpt><trkpt lat="43.0970300401862" lon="0.7347813619404546"><ele>358.0</ele><time>2026-04-01T14:02:36Z</time></trkpt><trkpt lat="43.096945845188195" lon="0.7348474122587799"><ele>358.0</ele><time>2026-04-01T14:02:37Z</time></trkpt><trkpt lat="43.09686462140746" lon="0.734912840057641"><ele>358.0</ele><time>2026-04-01T14:02:38Z</time></trkpt><trkpt lat="43.09678427277262" lon="0.7349775311627302"><ele>358.0</ele><time>2026-04-01T14:02:39Z</time></trkpt><trkpt lat="43.0967060830722" lon="0.7350390377260477"><ele>358.0</ele><time>2026-04-01T14:02:40Z</time></trkpt><trkpt lat="43.09663018857033" lon="0.7351031906384966"><ele>357.79999999999995</ele><time>2026-04-01T14:02:41Z</time></trkpt><trkpt lat="43.09655735429613" lon="0.7351631274813606"><ele>357.6</ele><time>2026-04-01T14:02:42Z</time></trkpt><trkpt lat="43.09649720655636" lon="0.7352162092913931"><ele>357.4</ele><time>2026-04-01T14:02:43Z</time></trkpt><trkpt lat="43.096397084413155" lon="0.7352995974129909"><ele>357.20000000000005</ele><time>2026-04-01T14:02:45Z</time></trkpt><trkpt lat="43.09630757555385" lon="0.7353667419825511"><ele>357.0</ele><time>2026-04-01T14:02:47Z</time></trkpt><trkpt lat="43.09621037717305" lon="0.7354423749010495"><ele>356.75</ele><time>2026-04-01T14:02:49Z</time></trkpt><trkpt lat="43.09610926502065" lon="0.7355255309360327"><ele>356.5</ele><time>2026-04-01T14:02:51Z</time></trkpt><trkpt lat="43.09600163776852" lon="0.7356114495393776"><ele>356.25</ele><time>2026-04-01T14:02:53Z</time></trkpt><trkpt lat="43.09589931647663" lon="0.7356943824131486"><ele>356.0</ele><time>2026-04-01T14:02:55Z</time></trkpt><trkpt lat="43.095798307826016" lon="0.7357783408262174"><ele>356.1666666666667</ele><time>2026-04-01T14:02:57Z</time></trkpt><trkpt lat="43.09570339677245" lon="0.7358527046801395"><ele>356.33333333333337</ele><time>2026-04-01T14:02:59Z</time></trkpt><trkpt lat="43.09559583523327" lon="0.7359262633741923"><ele>356.5</ele><time>2026-04-01T14:03:01Z</time></trkpt><trkpt lat="43.095535349576565" lon="0.7359590908397435"><ele>356.6666666666667</ele><time>2026-04-01T14:03:02Z</time></trkpt><trkpt lat="43.09546870926416" lon="0.7359725931929578"><ele>356.8333333333333</ele><time>2026-04-01T14:03:03Z</time></trkpt><trkpt lat="43.09540072885417" lon="0.7359812145426322"><ele>357.0</ele><time>2026-04-01T14:03:04Z</time></trkpt><trkpt lat="43.09533412224619" lon="0.7359942858977098"><ele>357.0</ele><time>2026-04-01T14:03:05Z</time></trkpt><trkpt lat="43.095272114446374" lon="0.7360246410700879"><ele>357.0</ele><time>2026-04-01T14:03:06Z</time></trkpt><trkpt lat="43.09522145046754" lon="0.7360780228557617"><ele>357.0</ele><time>2026-04-01T14:03:07Z</time></trkpt><trkpt lat="43.09518375206056" lon="0.736148238288892"><ele>357.0</ele><time>2026-04-01T14:03:08Z</time></trkpt><trkpt lat="43.09516234185959" lon="0.7362335546672915"><ele>357.0</ele><time>2026-04-01T14:03:09Z</time></trkpt><trkpt lat="43.09516341289481" lon="0.736322144234917"><ele>357.0</ele><time>2026-04-01T14:03:10Z</time></trkpt><trkpt lat="43.09518813740489" lon="0.7364128906094808"><ele>357.0</ele><time>2026-04-01T14:03:11Z</time></trkpt><trkpt lat="43.095232464385134" lon="0.7365114057342892"><ele>357.0</ele><time>2026-04-01T14:03:12Z</time></trkpt><trkpt lat="43.09531029281263" lon="0.7366024571415066"><ele>357.0</ele><time>2026-04-01T14:03:13Z</time></trkpt><trkpt lat="43.095335475469625" lon="0.7367732806351496"><ele>357.0</ele><time>2026-04-01T14:03:14Z</time></trkpt><trkpt lat="43.09536233165257" lon="0.7369457579618429"><ele>357.0</ele><time>2026-04-01T14:03:15Z</time></trkpt><trkpt lat="43.095378882606255" lon="0.7371257763998426"><ele>356.6666666666667</ele><time>2026-04-01T14:03:16Z</time></trkpt><trkpt lat="43.09540109931533" lon="0.7373289266426454"><ele>356.33333333333337</ele><time>2026-04-01T14:03:17Z</time></trkpt><trkpt lat="43.09543976634895" lon="0.7375426780411859"><ele>356.0</ele><time>2026-04-01T14:03:18Z</time></trkpt><trkpt lat="43.09549157791386" lon="0.7377736042525201"><ele>356.0</ele><time>2026-04-01T14:03:19Z</time></trkpt><trkpt lat="43.09555006037096" lon="0.7380172051985175"><ele>356.0</ele><time>2026-04-01T14:03:20Z</time></trkpt><trkpt lat="43.09561550792572" lon="0.7382655039810474"><ele>356.0</ele><time>2026-04-01T14:03:21Z</time></trkpt><trkpt lat="43.09569944929604" lon="0.7385163956192532"><ele>355.33333333333337</ele><time>2026-04-01T14:03:22Z</time></trkpt><trkpt lat="43.09580778983879" lon="0.73876261139102"><ele>354.6666666666667</ele><time>2026-04-01T14:03:23Z</time></trkpt><trkpt lat="43.0959363591075" lon="0.738996958773732"><ele>354.0</ele><time>2026-04-01T14:03:24Z</time></trkpt><trkpt lat="43.09608367701853" lon="0.7392197999525562"><ele>354.0</ele><time>2026-04-01T14:03:25Z</time></trkpt><trkpt lat="43.09624746333108" lon="0.7394297519041578"><ele>354.0</ele><time>2026-04-01T14:03:26Z</time></trkpt><trkpt lat="43.096415582977" lon="0.7396386576479826"><ele>354.0</ele><time>2026-04-01T14:03:27Z</time></trkpt><trkpt lat="43.09658288708666" lon="0.7398574637061228"><ele>354.0</ele><time>2026-04-01T14:03:28Z</time></trkpt><trkpt lat="43.09675129900541" lon="0.7400833735934449"><ele>354.0</ele><time>2026-04-01T14:03:29Z</time></trkpt><trkpt lat="43.09692015065096" lon="0.740311774829735"><ele>354.0</ele><time>2026-04-01T14:03:30Z</time></trkpt><trkpt lat="43.09709158159302" lon="0.7405387664275143"><ele>354.0</ele><time>2026-04-01T14:03:31Z</time></trkpt><trkpt lat="43.0972645605085" lon="0.7407674575169471"><ele>354.0</ele><time>2026-04-01T14:03:32Z</time></trkpt><trkpt lat="43.09743851785694" lon="0.740996007767283"><ele>354.5</ele><time>2026-04-01T14:03:33Z</time></trkpt><trkpt lat="43.09761121771487" lon="0.7412227619100217"><ele>355.0</ele><time>2026-04-01T14:03:34Z</time></trkpt><trkpt lat="43.09778287906055" lon="0.7414468505822595"><ele>355.0</ele><time>2026-04-01T14:03:35Z</time></trkpt><trkpt lat="43.097953441228924" lon="0.7416654707747465"><ele>355.0</ele><time>2026-04-01T14:03:36Z</time></trkpt><trkpt lat="43.09812187048119" lon="0.7418828351832303"><ele>354.0</ele><time>2026-04-01T14:03:37Z</time></trkpt><trkpt lat="43.098287133603584" lon="0.7420977863751557"><ele>353.0</ele><time>2026-04-01T14:03:38Z</time></trkpt><trkpt lat="43.09845327801209" lon="0.7423061675774478"><ele>353.0</ele><time>2026-04-01T14:03:39Z</time></trkpt><trkpt lat="43.098624303340166" lon="0.7425037914367233"><ele>353.0</ele><time>2026-04-01T14:03:40Z</time></trkpt><trkpt lat="43.098798264435004" lon="0.7426914209189444"><ele>353.0</ele><time>2026-04-01T14:03:41Z</time></trkpt><trkpt lat="43.09897685671101" lon="0.7428715636166517"><ele>352.33333333333337</ele><time>2026-04-01T14:03:42Z</time></trkpt><trkpt lat="43.099161088693926" lon="0.7430421988503726"><ele>351.6666666666667</ele><time>2026-04-01T14:03:43Z</time></trkpt><trkpt lat="43.09934971771875" lon="0.7432028349223743"><ele>351.0</ele><time>2026-04-01T14:03:44Z</time></trkpt><trkpt lat="43.09954009088862" lon="0.7433546178598387"><ele>351.0</ele><time>2026-04-01T14:03:45Z</time></trkpt><trkpt lat="43.099731138429796" lon="0.7435006112977668"><ele>351.0</ele><time>2026-04-01T14:03:46Z</time></trkpt><trkpt lat="43.09992544204633" lon="0.7436344609400748"><ele>351.0</ele><time>2026-04-01T14:03:47Z</time></trkpt><trkpt lat="43.10012580392461" lon="0.7437544208807501"><ele>350.3333333333333</ele><time>2026-04-01T14:03:48Z</time></trkpt><trkpt lat="43.10032896424583" lon="0.7438696851603385"><ele>349.66666666666663</ele><time>2026-04-01T14:03:49Z</time></trkpt><trkpt lat="43.100533780101415" lon="0.7439797565897511"><ele>349.0</ele><time>2026-04-01T14:03:50Z</time></trkpt><trkpt lat="43.10074306568267" lon="0.7440749788419053"><ele>349.3333333333333</ele><time>2026-04-01T14:03:51Z</time></trkpt><trkpt lat="43.10095907831607" lon="0.7441558102726086"><ele>349.6666666666667</ele><time>2026-04-01T14:03:52Z</time></trkpt><trkpt lat="43.101176847262735" lon="0.744224067862746"><ele>350.0</ele><time>2026-04-01T14:03:53Z</time></trkpt><trkpt lat="43.101411740830954" lon="0.7442778309975263"><ele>349.0</ele><time>2026-04-01T14:03:54Z</time></trkpt><trkpt lat="43.101653580625936" lon="0.7443475332017857"><ele>348.0</ele><time>2026-04-01T14:03:55Z</time></trkpt><trkpt lat="43.10189942432664" lon="0.7443942006440726"><ele>348.0</ele><time>2026-04-01T14:03:56Z</time></trkpt><trkpt lat="43.10216008865629" lon="0.7444291143607086"><ele>348.0</ele><time>2026-04-01T14:03:57Z</time></trkpt><trkpt lat="43.102410111282545" lon="0.7444248143843403"><ele>349.5</ele><time>2026-04-01T14:03:58Z</time></trkpt><trkpt lat="43.10265207001287" lon="0.7444639288383682"><ele>351.0</ele><time>2026-04-01T14:03:59Z</time></trkpt><trkpt lat="43.1028852878416" lon="0.7445109732541462"><ele>351.0</ele><time>2026-04-01T14:04:00Z</time></trkpt><trkpt lat="43.10310389026139" lon="0.7445753650714653"><ele>351.0</ele><time>2026-04-01T14:04:01Z</time></trkpt><trkpt lat="43.10330237996909" lon="0.7446551870041437"><ele>351.0</ele><time>2026-04-01T14:04:02Z</time></trkpt><trkpt lat="43.103490713334715" lon="0.7447517405999778"><ele>350.6666666666667</ele><time>2026-04-01T14:04:03Z</time></trkpt><trkpt lat="43.10367190315472" lon="0.7448673776878278"><ele>350.33333333333337</ele><time>2026-04-01T14:04:04Z</time></trkpt><trkpt lat="43.10383946229568" lon="0.7449929599604034"><ele>350.0</ele><time>2026-04-01T14:04:05Z</time></trkpt><trkpt lat="43.10400419803666" lon="0.7451390069188168"><ele>349.6666666666667</ele><time>2026-04-01T14:04:06Z</time></trkpt><trkpt lat="43.1041711313625" lon="0.7453133681111284"><ele>349.3333333333333</ele><time>2026-04-01T14:04:07Z</time></trkpt><trkpt lat="43.104339897120084" lon="0.7455210554985426"><ele>349.0</ele><time>2026-04-01T14:04:08Z</time></trkpt><trkpt lat="43.10449458232915" lon="0.7457604997405655"><ele>349.0</ele><time>2026-04-01T14:04:09Z</time></trkpt><trkpt lat="43.10463785979233" lon="0.7460175909523449"><ele>349.0</ele><time>2026-04-01T14:04:10Z</time></trkpt><trkpt lat="43.104781725068" lon="0.746281240302357"><ele>348.5</ele><time>2026-04-01T14:04:11Z</time></trkpt><trkpt lat="43.1049239075773" lon="0.746530546372049"><ele>348.0</ele><time>2026-04-01T14:04:12Z</time></trkpt><trkpt lat="43.105070842469544" lon="0.7467793212181292"><ele>347.5</ele><time>2026-04-01T14:04:13Z</time></trkpt><trkpt lat="43.10521749347954" lon="0.7470178003854554"><ele>347.0</ele><time>2026-04-01T14:04:14Z</time></trkpt><trkpt lat="43.10536337184964" lon="0.7472579364923706"><ele>347.0</ele><time>2026-04-01T14:04:15Z</time></trkpt><trkpt lat="43.10550517500682" lon="0.7474973456655816"><ele>347.0</ele><time>2026-04-01T14:04:16Z</time></trkpt><trkpt lat="43.10564410383123" lon="0.7477421169070073"><ele>346.6666666666667</ele><time>2026-04-01T14:04:17Z</time></trkpt><trkpt lat="43.10577451283732" lon="0.7479867520897275"><ele>346.3333333333333</ele><time>2026-04-01T14:04:18Z</time></trkpt><trkpt lat="43.10590083976515" lon="0.7482364046439045"><ele>346.0</ele><time>2026-04-01T14:04:19Z</time></trkpt><trkpt lat="43.10602646852317" lon="0.7484810509331051"><ele>346.0</ele><time>2026-04-01T14:04:20Z</time></trkpt><trkpt lat="43.10614747619856" lon="0.7487213400383952"><ele>346.0</ele><time>2026-04-01T14:04:21Z</time></trkpt><trkpt lat="43.106259928344244" lon="0.7489662626771761"><ele>346.0</ele><time>2026-04-01T14:04:22Z</time></trkpt><trkpt lat="43.10636285153153" lon="0.7492088632628295"><ele>346.3333333333333</ele><time>2026-04-01T14:04:23Z</time></trkpt><trkpt lat="43.10645475194065" lon="0.749438448935244"><ele>346.6666666666667</ele><time>2026-04-01T14:04:24Z</time></trkpt><trkpt lat="43.10653574079618" lon="0.7496577756803567"><ele>347.0</ele><time>2026-04-01T14:04:25Z</time></trkpt><trkpt lat="43.106602600225955" lon="0.7498467752841028"><ele>347.25</ele><time>2026-04-01T14:04:26Z</time></trkpt><trkpt lat="43.106635081862855" lon="0.750027590408357"><ele>347.5</ele><time>2026-04-01T14:04:27Z</time></trkpt><trkpt lat="43.106634573060006" lon="0.7502103754682656"><ele>347.75</ele><time>2026-04-01T14:04:28Z</time></trkpt><trkpt lat="43.10664643561027" lon="0.7504092961991636"><ele>348.0</ele><time>2026-04-01T14:04:29Z</time></trkpt><trkpt lat="43.10664470658416" lon="0.7506185995806227"><ele>347.5</ele><time>2026-04-01T14:04:30Z</time></trkpt><trkpt lat="43.106654958077314" lon="0.7508430546977448"><ele>347.0</ele><time>2026-04-01T14:04:31Z</time></trkpt><trkpt lat="43.10619633138564" lon="0.7510157461962818"><ele>348.0</ele><time>2026-04-01T14:04:32Z</time></trkpt><trkpt lat="43.1063264890096" lon="0.7516711818793737"><ele>348.0</ele><time>2026-04-01T14:04:33Z</time></trkpt><trkpt lat="43.106493374250604" lon="0.7519160397615582"><ele>348.0</ele><time>2026-04-01T14:04:34Z</time></trkpt><trkpt lat="43.10657159018518" lon="0.7519977874161631"><ele>348.0</ele><time>2026-04-01T14:04:35Z</time></trkpt><trkpt lat="43.10663394336645" lon="0.752238646968935"><ele>346.5</ele><time>2026-04-01T14:04:36Z</time></trkpt><trkpt lat="43.1066579732138" lon="0.7525748506788236"><ele>345.0</ele><time>2026-04-01T14:04:37Z</time></trkpt><trkpt lat="43.106694112382826" lon="0.7529150960147589"><ele>344.5</ele><time>2026-04-01T14:04:38Z</time></trkpt><trkpt lat="43.10676228896759" lon="0.7532653822320768"><ele>344.0</ele><time>2026-04-01T14:04:39Z</time></trkpt><trkpt lat="43.106844260241225" lon="0.7535949968273749"><ele>345.5</ele><time>2026-04-01T14:04:40Z</time></trkpt><trkpt lat="43.10694536165098" lon="0.7539117345692573"><ele>347.0</ele><time>2026-04-01T14:04:41Z</time></trkpt><trkpt lat="43.107067519571075" lon="0.7542166578904039"><ele>351.0</ele><time>2026-04-01T14:04:42Z</time></trkpt><trkpt lat="43.107207677156104" lon="0.7544950576412771"><ele>355.0</ele><time>2026-04-01T14:04:43Z</time></trkpt><trkpt lat="43.107339969277966" lon="0.7547558393601246"><ele>355.5</ele><time>2026-04-01T14:04:44Z</time></trkpt><trkpt lat="43.10747728302788" lon="0.7550034304263653"><ele>356.0</ele><time>2026-04-01T14:04:45Z</time></trkpt><trkpt lat="43.1077992669102" lon="0.7550691079065431"><ele>358.0</ele><time>2026-04-01T14:04:46Z</time></trkpt><trkpt lat="43.10798274122164" lon="0.7552487549296291"><ele>360.0</ele><time>2026-04-01T14:04:47Z</time></trkpt><trkpt lat="43.10817690257737" lon="0.7554013789154251"><ele>362.0</ele><time>2026-04-01T14:04:48Z</time></trkpt><trkpt lat="43.10837500182736" lon="0.7555372435897315"><ele>362.0</ele><time>2026-04-01T14:04:49Z</time></trkpt><trkpt lat="43.10858095211732" lon="0.7556564843848106"><ele>362.0</ele><time>2026-04-01T14:04:50Z</time></trkpt><trkpt lat="43.10879155025971" lon="0.7557682265231159"><ele>362.0</ele><time>2026-04-01T14:04:51Z</time></trkpt><trkpt lat="43.109006406198645" lon="0.755877120032061"><ele>362.0</ele><time>2026-04-01T14:04:52Z</time></trkpt><trkpt lat="43.10921633414873" lon="0.7559903436374802"><ele>362.0</ele><time>2026-04-01T14:04:53Z</time></trkpt><trkpt lat="43.10942273525418" lon="0.7561122987146006"><ele>362.5</ele><time>2026-04-01T14:04:54Z</time></trkpt><trkpt lat="43.10962965802762" lon="0.7562277197396686"><ele>363.0</ele><time>2026-04-01T14:04:55Z</time></trkpt><trkpt lat="43.10984566972773" lon="0.756342935267475"><ele>364.0</ele><time>2026-04-01T14:04:56Z</time></trkpt><trkpt lat="43.11006238896033" lon="0.756459970694504"><ele>365.0</ele><time>2026-04-01T14:04:57Z</time></trkpt><trkpt lat="43.11031052730467" lon="0.7565971013636792"><ele>365.0</ele><time>2026-04-01T14:04:58Z</time></trkpt><trkpt lat="43.110530848545274" lon="0.7567061486539807"><ele>365.0</ele><time>2026-04-01T14:04:59Z</time></trkpt><trkpt lat="43.11073741695118" lon="0.7568159787126988"><ele>366.6666666666667</ele><time>2026-04-01T14:05:00Z</time></trkpt><trkpt lat="43.1109356917621" lon="0.7569254132618148"><ele>368.3333333333333</ele><time>2026-04-01T14:05:01Z</time></trkpt><trkpt lat="43.111128011386235" lon="0.7570265011837676"><ele>370.0</ele><time>2026-04-01T14:05:02Z</time></trkpt><trkpt lat="43.11131264636714" lon="0.7571238483551971"><ele>370.0</ele><time>2026-04-01T14:05:03Z</time></trkpt><trkpt lat="43.11147870759068" lon="0.7572075732056238"><ele>370.0</ele><time>2026-04-01T14:05:04Z</time></trkpt><trkpt lat="43.11163502640579" lon="0.7572785489849791"><ele>370.0</ele><time>2026-04-01T14:05:05Z</time></trkpt><trkpt lat="43.111775184775944" lon="0.75734589961626"><ele>372.75</ele><time>2026-04-01T14:05:06Z</time></trkpt><trkpt lat="43.111901449398246" lon="0.7574101748935671"><ele>375.5</ele><time>2026-04-01T14:05:07Z</time></trkpt><trkpt lat="43.112014458859946" lon="0.7574659459935936"><ele>378.25</ele><time>2026-04-01T14:05:08Z</time></trkpt><trkpt lat="43.11211404636072" lon="0.7575116832382525"><ele>381.0</ele><time>2026-04-01T14:05:09Z</time></trkpt><trkpt lat="43.112210898720065" lon="0.7575464774030175"><ele>381.0</ele><time>2026-04-01T14:05:10Z</time></trkpt><trkpt lat="43.112310894967685" lon="0.7575776970244855"><ele>381.0</ele><time>2026-04-01T14:05:11Z</time></trkpt><trkpt lat="43.11240698423582" lon="0.7576022376918415"><ele>381.0</ele><time>2026-04-01T14:05:12Z</time></trkpt><trkpt lat="43.112492070625464" lon="0.7576112000810319"><ele>381.0</ele><time>2026-04-01T14:05:13Z</time></trkpt><trkpt lat="43.11257195809702" lon="0.7576193757016945"><ele>381.0</ele><time>2026-04-01T14:05:14Z</time></trkpt><trkpt lat="43.11266580420809" lon="0.7576353518332165"><ele>382.3333333333333</ele><time>2026-04-01T14:05:15Z</time></trkpt><trkpt lat="43.11274742640545" lon="0.757638434780404"><ele>383.66666666666663</ele><time>2026-04-01T14:05:16Z</time></trkpt><trkpt lat="43.11283647775992" lon="0.7576388281819337"><ele>385.0</ele><time>2026-04-01T14:05:18Z</time></trkpt><trkpt lat="43.11291568560092" lon="0.7576360497821145"><ele>386.3333333333333</ele><time>2026-04-01T14:05:20Z</time></trkpt><trkpt lat="43.113039288664226" lon="0.757645034257545"><ele>387.66666666666663</ele><time>2026-04-01T14:05:22Z</time></trkpt><trkpt lat="43.11311250355401" lon="0.7576569429897672"><ele>389.0</ele><time>2026-04-01T14:05:23Z</time></trkpt><trkpt lat="43.11321375780015" lon="0.7576985910648448"><ele>389.2</ele><time>2026-04-01T14:05:25Z</time></trkpt><trkpt lat="43.11328138006748" lon="0.757836884896482"><ele>389.4</ele><time>2026-04-01T14:05:27Z</time></trkpt><trkpt lat="43.11330628269802" lon="0.7579309043382945"><ele>389.6</ele><time>2026-04-01T14:05:28Z</time></trkpt><trkpt lat="43.113314512483115" lon="0.7580392428659385"><ele>389.8</ele><time>2026-04-01T14:05:29Z</time></trkpt><trkpt lat="43.11329816899857" lon="0.7581558876690582"><ele>390.0</ele><time>2026-04-01T14:05:30Z</time></trkpt><trkpt lat="43.11325843359818" lon="0.758272157048745"><ele>389.25</ele><time>2026-04-01T14:05:31Z</time></trkpt><trkpt lat="43.113219448506804" lon="0.7584001423707863"><ele>388.5</ele><time>2026-04-01T14:05:32Z</time></trkpt><trkpt lat="43.11317800268015" lon="0.7585322757076575"><ele>387.75</ele><time>2026-04-01T14:05:33Z</time></trkpt><trkpt lat="43.11311985562649" lon="0.7586833762415376"><ele>387.0</ele><time>2026-04-01T14:05:34Z</time></trkpt><trkpt lat="43.11304086991562" lon="0.7588497614549806"><ele>387.0</ele><time>2026-04-01T14:05:35Z</time></trkpt><trkpt lat="43.11294626232775" lon="0.7590000233579273"><ele>387.0</ele><time>2026-04-01T14:05:36Z</time></trkpt><trkpt lat="43.112849762413006" lon="0.7591683869080192"><ele>387.0</ele><time>2026-04-01T14:05:37Z</time></trkpt><trkpt lat="43.112773268448" lon="0.7593701646039245"><ele>387.33333333333337</ele><time>2026-04-01T14:05:38Z</time></trkpt><trkpt lat="43.11272204015434" lon="0.759587412267746"><ele>387.6666666666667</ele><time>2026-04-01T14:05:39Z</time></trkpt><trkpt lat="43.11268614983474" lon="0.7598226996352708"><ele>388.0</ele><time>2026-04-01T14:05:40Z</time></trkpt><trkpt lat="43.11266478679435" lon="0.7600755561034367"><ele>389.0</ele><time>2026-04-01T14:05:41Z</time></trkpt><trkpt lat="43.112662916282616" lon="0.7603410887988807"><ele>390.0</ele><time>2026-04-01T14:05:42Z</time></trkpt><trkpt lat="43.112673676274376" lon="0.7606278307217759"><ele>391.0</ele><time>2026-04-01T14:05:43Z</time></trkpt><trkpt lat="43.112682990615866" lon="0.760928909827114"><ele>391.0</ele><time>2026-04-01T14:05:44Z</time></trkpt><trkpt lat="43.11268475976577" lon="0.7612452627757791"><ele>391.0</ele><time>2026-04-01T14:05:45Z</time></trkpt><trkpt lat="43.112682543943635" lon="0.7615489628610064"><ele>391.0</ele><time>2026-04-01T14:05:46Z</time></trkpt><trkpt lat="43.11268061356768" lon="0.7618486429256098"><ele>391.0</ele><time>2026-04-01T14:05:47Z</time></trkpt><trkpt lat="43.11268098519684" lon="0.7621532114668405"><ele>391.0</ele><time>2026-04-01T14:05:48Z</time></trkpt><trkpt lat="43.1126855191907" lon="0.7624561418389759"><ele>390.0</ele><time>2026-04-01T14:05:49Z</time></trkpt><trkpt lat="43.1126888126636" lon="0.7627568285057535"><ele>389.0</ele><time>2026-04-01T14:05:50Z</time></trkpt><trkpt lat="43.1126898027899" lon="0.7630588779016807"><ele>388.0</ele><time>2026-04-01T14:05:51Z</time></trkpt><trkpt lat="43.1126903619994" lon="0.763359264642265"><ele>387.33333333333337</ele><time>2026-04-01T14:05:52Z</time></trkpt><trkpt lat="43.112693984731166" lon="0.7636550278457563"><ele>386.66666666666663</ele><time>2026-04-01T14:05:53Z</time></trkpt><trkpt lat="43.11269707689277" lon="0.7639469031613914"><ele>386.0</ele><time>2026-04-01T14:05:54Z</time></trkpt><trkpt lat="43.11269886868544" lon="0.7642310467975855"><ele>385.3333333333333</ele><time>2026-04-01T14:05:55Z</time></trkpt><trkpt lat="43.112700077041566" lon="0.7645074260093083"><ele>384.66666666666663</ele><time>2026-04-01T14:05:56Z</time></trkpt><trkpt lat="43.112702105711264" lon="0.7647794191015088"><ele>384.0</ele><time>2026-04-01T14:05:57Z</time></trkpt><trkpt lat="43.11270266648549" lon="0.7650466636549598"><ele>383.3333333333333</ele><time>2026-04-01T14:05:58Z</time></trkpt><trkpt lat="43.11270124374705" lon="0.7653158328618082"><ele>382.66666666666663</ele><time>2026-04-01T14:05:59Z</time></trkpt><trkpt lat="43.11269721993207" lon="0.7655810174735306"><ele>382.0</ele><time>2026-04-01T14:06:00Z</time></trkpt><trkpt lat="43.11269618093272" lon="0.765845226921818"><ele>382.0</ele><time>2026-04-01T14:06:01Z</time></trkpt><trkpt lat="43.11269778320069" lon="0.7661062471971191"><ele>382.0</ele><time>2026-04-01T14:06:02Z</time></trkpt><trkpt lat="43.11269813041522" lon="0.7663648877723028"><ele>382.0</ele><time>2026-04-01T14:06:03Z</time></trkpt><trkpt lat="43.112699800097865" lon="0.7666143068595006"><ele>382.0</ele><time>2026-04-01T14:06:04Z</time></trkpt><trkpt lat="43.11270068730414" lon="0.7668447991523353"><ele>382.0</ele><time>2026-04-01T14:06:05Z</time></trkpt><trkpt lat="43.112702621438004" lon="0.7670569749901787"><ele>382.0</ele><time>2026-04-01T14:06:06Z</time></trkpt><trkpt lat="43.11270503205274" lon="0.767261650837907"><ele>382.0</ele><time>2026-04-01T14:06:07Z</time></trkpt><trkpt lat="43.11271520608433" lon="0.7674693345334842"><ele>382.0</ele><time>2026-04-01T14:06:08Z</time></trkpt><trkpt lat="43.112728164410825" lon="0.7676914029667538"><ele>382.0</ele><time>2026-04-01T14:06:09Z</time></trkpt><trkpt lat="43.112725949324165" lon="0.7679250746388007"><ele>382.0</ele><time>2026-04-01T14:06:10Z</time></trkpt><trkpt lat="43.112713308197876" lon="0.7681427929828218"><ele>382.0</ele><time>2026-04-01T14:06:11Z</time></trkpt><trkpt lat="43.112690295896975" lon="0.7683353706004887"><ele>382.0</ele><time>2026-04-01T14:06:12Z</time></trkpt><trkpt lat="43.11265806518868" lon="0.7685099096739684"><ele>382.0</ele><time>2026-04-01T14:06:13Z</time></trkpt><trkpt lat="43.11261734239079" lon="0.7686634402426555"><ele>382.5</ele><time>2026-04-01T14:06:14Z</time></trkpt><trkpt lat="43.112564662849366" lon="0.7688003014494419"><ele>383.0</ele><time>2026-04-01T14:06:15Z</time></trkpt><trkpt lat="43.11252717961489" lon="0.7689301177213169"><ele>383.5</ele><time>2026-04-01T14:06:16Z</time></trkpt><trkpt lat="43.11253427353546" lon="0.7690706994786891"><ele>384.0</ele><time>2026-04-01T14:06:17Z</time></trkpt><trkpt lat="43.11258246789454" lon="0.7692479634014208"><ele>384.33333333333337</ele><time>2026-04-01T14:06:18Z</time></trkpt><trkpt lat="43.112642572429564" lon="0.7694546617610306"><ele>384.6666666666667</ele><time>2026-04-01T14:06:19Z</time></trkpt><trkpt lat="43.11269003831891" lon="0.7696753818909831"><ele>385.0</ele><time>2026-04-01T14:06:20Z</time></trkpt><trkpt lat="43.11272072548712" lon="0.7699169601506904"><ele>385.0</ele><time>2026-04-01T14:06:21Z</time></trkpt><trkpt lat="43.11272952972499" lon="0.7701817963550855"><ele>385.0</ele><time>2026-04-01T14:06:22Z</time></trkpt><trkpt lat="43.11272418578204" lon="0.7704615003174636"><ele>385.0</ele><time>2026-04-01T14:06:23Z</time></trkpt><trkpt lat="43.112721573637664" lon="0.7707409594954986"><ele>386.0</ele><time>2026-04-01T14:06:24Z</time></trkpt><trkpt lat="43.112728633386524" lon="0.7710314601889827"><ele>387.0</ele><time>2026-04-01T14:06:25Z</time></trkpt><trkpt lat="43.11273720377138" lon="0.7713336859850084"><ele>388.0</ele><time>2026-04-01T14:06:26Z</time></trkpt><trkpt lat="43.112742834042194" lon="0.7716483522813568"><ele>385.0</ele><time>2026-04-01T14:06:27Z</time></trkpt><trkpt lat="43.112744070377744" lon="0.7719588419583847"><ele>382.0</ele><time>2026-04-01T14:06:28Z</time></trkpt><trkpt lat="43.11274059569542" lon="0.7722683398105571"><ele>382.0</ele><time>2026-04-01T14:06:29Z</time></trkpt><trkpt lat="43.112732647686286" lon="0.7725756487396561"><ele>382.0</ele><time>2026-04-01T14:06:30Z</time></trkpt><trkpt lat="43.11272393266422" lon="0.7728816426664255"><ele>382.0</ele><time>2026-04-01T14:06:31Z</time></trkpt><trkpt lat="43.11272203935469" lon="0.7731873717437958"><ele>382.0</ele><time>2026-04-01T14:06:32Z</time></trkpt><trkpt lat="43.112723884949325" lon="0.7734925748532456"><ele>382.0</ele><time>2026-04-01T14:06:33Z</time></trkpt><trkpt lat="43.11272641935983" lon="0.7737954386226141"><ele>382.0</ele><time>2026-04-01T14:06:34Z</time></trkpt><trkpt lat="43.11272683358125" lon="0.7741003338805391"><ele>382.66666666666663</ele><time>2026-04-01T14:06:35Z</time></trkpt><trkpt lat="43.11272668921189" lon="0.7744037635932034"><ele>383.3333333333333</ele><time>2026-04-01T14:06:36Z</time></trkpt><trkpt lat="43.11272770942504" lon="0.7747051247485285"><ele>384.0</ele><time>2026-04-01T14:06:37Z</time></trkpt><trkpt lat="43.112730386139035" lon="0.7750060469781015"><ele>383.3333333333333</ele><time>2026-04-01T14:06:38Z</time></trkpt><trkpt lat="43.11273307278192" lon="0.7753071996826049"><ele>382.66666666666663</ele><time>2026-04-01T14:06:39Z</time></trkpt><trkpt lat="43.112736225304616" lon="0.7756116931977741"><ele>382.0</ele><time>2026-04-01T14:06:40Z</time></trkpt><trkpt lat="43.112738405770074" lon="0.7759160915343477"><ele>382.0</ele><time>2026-04-01T14:06:41Z</time></trkpt><trkpt lat="43.112738188133264" lon="0.7762202320029196"><ele>382.0</ele><time>2026-04-01T14:06:42Z</time></trkpt><trkpt lat="43.11273634001307" lon="0.7765260307017848"><ele>382.0</ele><time>2026-04-01T14:06:43Z</time></trkpt><trkpt lat="43.11273465724751" lon="0.7768308602724232"><ele>382.0</ele><time>2026-04-01T14:06:44Z</time></trkpt><trkpt lat="43.1127362333598" lon="0.7771366586705625"><ele>382.0</ele><time>2026-04-01T14:06:45Z</time></trkpt><trkpt lat="43.11273875760568" lon="0.7774432959241206"><ele>382.0</ele><time>2026-04-01T14:06:46Z</time></trkpt><trkpt lat="43.11274278710627" lon="0.7777476055056662"><ele>382.0</ele><time>2026-04-01T14:06:47Z</time></trkpt><trkpt lat="43.112745343008946" lon="0.7780549267062952"><ele>382.0</ele><time>2026-04-01T14:06:48Z</time></trkpt><trkpt lat="43.11274806224663" lon="0.7783589917424237"><ele>382.0</ele><time>2026-04-01T14:06:49Z</time></trkpt><trkpt lat="43.112748866206836" lon="0.778665315236653"><ele>382.0</ele><time>2026-04-01T14:06:50Z</time></trkpt><trkpt lat="43.11274850114881" lon="0.7789677721464986"><ele>382.0</ele><time>2026-04-01T14:06:51Z</time></trkpt><trkpt lat="43.11274728661844" lon="0.7792692580024208"><ele>382.0</ele><time>2026-04-01T14:06:52Z</time></trkpt><trkpt lat="43.11274795494497" lon="0.7795700198692597"><ele>382.0</ele><time>2026-04-01T14:06:53Z</time></trkpt><trkpt lat="43.11274922644397" lon="0.7798723184307069"><ele>382.0</ele><time>2026-04-01T14:06:54Z</time></trkpt><trkpt lat="43.11274917542398" lon="0.7801732382647248"><ele>382.0</ele><time>2026-04-01T14:06:55Z</time></trkpt><trkpt lat="43.11275016335996" lon="0.7804750219741624"><ele>382.0</ele><time>2026-04-01T14:06:56Z</time></trkpt><trkpt lat="43.112752849103565" lon="0.7807770367279344"><ele>382.0</ele><time>2026-04-01T14:06:57Z</time></trkpt><trkpt lat="43.11275656428109" lon="0.7810702201119653"><ele>382.0</ele><time>2026-04-01T14:06:58Z</time></trkpt><trkpt lat="43.11275864249058" lon="0.7813481419679671"><ele>382.3333333333333</ele><time>2026-04-01T14:06:59Z</time></trkpt><trkpt lat="43.112761521640564" lon="0.7816064619101251"><ele>382.6666666666667</ele><time>2026-04-01T14:07:00Z</time></trkpt><trkpt lat="43.11276342664007" lon="0.7818428237100509"><ele>383.0</ele><time>2026-04-01T14:07:01Z</time></trkpt><trkpt lat="43.112760911604134" lon="0.7820722266916555"><ele>383.0</ele><time>2026-04-01T14:07:02Z</time></trkpt><trkpt lat="43.11275504602695" lon="0.7822936893342821"><ele>383.0</ele><time>2026-04-01T14:07:03Z</time></trkpt><trkpt lat="43.11275095960907" lon="0.7824883523735282"><ele>383.0</ele><time>2026-04-01T14:07:04Z</time></trkpt><trkpt lat="43.112752209540936" lon="0.7826719097969235"><ele>383.0</ele><time>2026-04-01T14:07:05Z</time></trkpt><trkpt lat="43.112751601567616" lon="0.7828424814883619"><ele>382.75</ele><time>2026-04-01T14:07:06Z</time></trkpt><trkpt lat="43.11274131685789" lon="0.7830163182116808"><ele>382.5</ele><time>2026-04-01T14:07:07Z</time></trkpt><trkpt lat="43.11270406133004" lon="0.7831866398823744"><ele>382.25</ele><time>2026-04-01T14:07:08Z</time></trkpt><trkpt lat="43.11269265041911" lon="0.7833488817152563"><ele>382.0</ele><time>2026-04-01T14:07:09Z</time></trkpt><trkpt lat="43.112726970303804" lon="0.7835344266007871"><ele>382.0</ele><time>2026-04-01T14:07:10Z</time></trkpt><trkpt lat="43.11277473104168" lon="0.7837703381888449"><ele>382.0</ele><time>2026-04-01T14:07:11Z</time></trkpt><trkpt lat="43.11278467921063" lon="0.784034632958097"><ele>382.0</ele><time>2026-04-01T14:07:12Z</time></trkpt><trkpt lat="43.11277780324821" lon="0.7843251164656189"><ele>381.5</ele><time>2026-04-01T14:07:13Z</time></trkpt><trkpt lat="43.11278618417466" lon="0.7846243142461005"><ele>381.0</ele><time>2026-04-01T14:07:14Z</time></trkpt><trkpt lat="43.112791758733465" lon="0.7849409699300817"><ele>380.5</ele><time>2026-04-01T14:07:15Z</time></trkpt><trkpt lat="43.112796157880254" lon="0.7852668580020694"><ele>380.0</ele><time>2026-04-01T14:07:16Z</time></trkpt><trkpt lat="43.112790988202654" lon="0.7855989909259484"><ele>380.0</ele><time>2026-04-01T14:07:17Z</time></trkpt><trkpt lat="43.112777626538644" lon="0.7859404481896511"><ele>380.0</ele><time>2026-04-01T14:07:18Z</time></trkpt><trkpt lat="43.11277275264669" lon="0.7862809171461154"><ele>379.5</ele><time>2026-04-01T14:07:19Z</time></trkpt><trkpt lat="43.11277624610485" lon="0.7866152797065022"><ele>379.0</ele><time>2026-04-01T14:07:20Z</time></trkpt><trkpt lat="43.11277712630364" lon="0.7869451566401332"><ele>378.0</ele><time>2026-04-01T14:07:21Z</time></trkpt><trkpt lat="43.11277701785626" lon="0.7872681758773842"><ele>377.0</ele><time>2026-04-01T14:07:22Z</time></trkpt><trkpt lat="43.112781858238854" lon="0.7875849555223785"><ele>378.0</ele><time>2026-04-01T14:07:23Z</time></trkpt><trkpt lat="43.11279362400031" lon="0.7878968523094325"><ele>379.0</ele><time>2026-04-01T14:07:24Z</time></trkpt><trkpt lat="43.1128009707114" lon="0.7882078606308556"><ele>379.0</ele><time>2026-04-01T14:07:25Z</time></trkpt><trkpt lat="43.112800257466944" lon="0.7885149644601239"><ele>379.0</ele><time>2026-04-01T14:07:26Z</time></trkpt><trkpt lat="43.1128003279158" lon="0.7888240629539209"><ele>379.0</ele><time>2026-04-01T14:07:27Z</time></trkpt><trkpt lat="43.11280341285691" lon="0.7891303725849419"><ele>379.0</ele><time>2026-04-01T14:07:28Z</time></trkpt><trkpt lat="43.112806240214724" lon="0.7894381341860525"><ele>379.0</ele><time>2026-04-01T14:07:29Z</time></trkpt><trkpt lat="43.11281106593985" lon="0.7897556602220517"><ele>378.0</ele><time>2026-04-01T14:07:30Z</time></trkpt><trkpt lat="43.11281454619969" lon="0.7900897294506833"><ele>377.0</ele><time>2026-04-01T14:07:31Z</time></trkpt><trkpt lat="43.11280835378335" lon="0.7904293592231052"><ele>376.5</ele><time>2026-04-01T14:07:32Z</time></trkpt><trkpt lat="43.11279774089777" lon="0.7907750403908009"><ele>376.0</ele><time>2026-04-01T14:07:33Z</time></trkpt><trkpt lat="43.11279422191214" lon="0.7911273313326264"><ele>376.0</ele><time>2026-04-01T14:07:34Z</time></trkpt><trkpt lat="43.11279463814055" lon="0.7914765674199851"><ele>376.0</ele><time>2026-04-01T14:07:35Z</time></trkpt><trkpt lat="43.11279437227332" lon="0.7918206500225448"><ele>376.5</ele><time>2026-04-01T14:07:36Z</time></trkpt><trkpt lat="43.11279262761989" lon="0.792164097446673"><ele>377.0</ele><time>2026-04-01T14:07:37Z</time></trkpt><trkpt lat="43.11279388986974" lon="0.7925028518471127"><ele>376.5</ele><time>2026-04-01T14:07:38Z</time></trkpt><trkpt lat="43.112797198078994" lon="0.792836396570075"><ele>376.0</ele><time>2026-04-01T14:07:39Z</time></trkpt><trkpt lat="43.11279781105482" lon="0.7931625557032226"><ele>376.0</ele><time>2026-04-01T14:07:40Z</time></trkpt><trkpt lat="43.1127974983713" lon="0.793483508947336"><ele>376.0</ele><time>2026-04-01T14:07:41Z</time></trkpt><trkpt lat="43.11280174514331" lon="0.7938029245053776"><ele>376.0</ele><time>2026-04-01T14:07:42Z</time></trkpt><trkpt lat="43.112803905670596" lon="0.7941241510797714"><ele>376.0</ele><time>2026-04-01T14:07:43Z</time></trkpt><trkpt lat="43.112802450279055" lon="0.7944469152355439"><ele>376.0</ele><time>2026-04-01T14:07:44Z</time></trkpt><trkpt lat="43.112799973017815" lon="0.7947739208682073"><ele>376.0</ele><time>2026-04-01T14:07:45Z</time></trkpt><trkpt lat="43.112797272072434" lon="0.7950990937789556"><ele>376.5</ele><time>2026-04-01T14:07:46Z</time></trkpt><trkpt lat="43.11279790366789" lon="0.7954244840198218"><ele>377.0</ele><time>2026-04-01T14:07:47Z</time></trkpt><trkpt lat="43.11280127405356" lon="0.7957668517593615"><ele>377.0</ele><time>2026-04-01T14:07:48Z</time></trkpt><trkpt lat="43.112802234146606" lon="0.7960987730300957"><ele>377.0</ele><time>2026-04-01T14:07:49Z</time></trkpt><trkpt lat="43.11280365744152" lon="0.7964295395726307"><ele>377.0</ele><time>2026-04-01T14:07:50Z</time></trkpt><trkpt lat="43.112805626599744" lon="0.7967573130753082"><ele>377.0</ele><time>2026-04-01T14:07:51Z</time></trkpt><trkpt lat="43.11280733520826" lon="0.797084641351709"><ele>376.5</ele><time>2026-04-01T14:07:52Z</time></trkpt><trkpt lat="43.1128097831085" lon="0.7974153727657609"><ele>376.0</ele><time>2026-04-01T14:07:53Z</time></trkpt><trkpt lat="43.11281262641221" lon="0.7977443686774291"><ele>375.5</ele><time>2026-04-01T14:07:54Z</time></trkpt><trkpt lat="43.11281749129183" lon="0.7980717323762683"><ele>375.0</ele><time>2026-04-01T14:07:55Z</time></trkpt><trkpt lat="43.112817907480625" lon="0.7983977888621959"><ele>375.5</ele><time>2026-04-01T14:07:56Z</time></trkpt><trkpt lat="43.11281530678352" lon="0.7987214137736642"><ele>376.0</ele><time>2026-04-01T14:07:57Z</time></trkpt><trkpt lat="43.112816467991415" lon="0.7990421386567325"><ele>376.0</ele><time>2026-04-01T14:07:58Z</time></trkpt><trkpt lat="43.112819942407306" lon="0.7993694691278036"><ele>376.0</ele><time>2026-04-01T14:07:59Z</time></trkpt><trkpt lat="43.112820730177276" lon="0.7996988566918267"><ele>376.0</ele><time>2026-04-01T14:08:00Z</time></trkpt><trkpt lat="43.11282113562283" lon="0.8000302417816489"><ele>376.0</ele><time>2026-04-01T14:08:01Z</time></trkpt><trkpt lat="43.11282034583697" lon="0.800359206148129"><ele>376.0</ele><time>2026-04-01T14:08:02Z</time></trkpt><trkpt lat="43.11282454074475" lon="0.8006908562716971"><ele>376.0</ele><time>2026-04-01T14:08:03Z</time></trkpt><trkpt lat="43.11283114004012" lon="0.8010238366214941"><ele>375.5</ele><time>2026-04-01T14:08:04Z</time></trkpt><trkpt lat="43.11282199341207" lon="0.8013592748406408"><ele>375.0</ele><time>2026-04-01T14:08:05Z</time></trkpt><trkpt lat="43.11282285781122" lon="0.8016958574276928"><ele>375.0</ele><time>2026-04-01T14:08:06Z</time></trkpt><trkpt lat="43.11282585301675" lon="0.802036985740614"><ele>375.0</ele><time>2026-04-01T14:08:07Z</time></trkpt><trkpt lat="43.11282031215908" lon="0.8023774656208161"><ele>374.5</ele><time>2026-04-01T14:08:08Z</time></trkpt><trkpt lat="43.112817665003725" lon="0.8027170612800221"><ele>374.0</ele><time>2026-04-01T14:08:09Z</time></trkpt><trkpt lat="43.11281968652372" lon="0.8030538843195947"><ele>374.0</ele><time>2026-04-01T14:08:10Z</time></trkpt><trkpt lat="43.11282160445282" lon="0.8033877131796191"><ele>374.0</ele><time>2026-04-01T14:08:11Z</time></trkpt><trkpt lat="43.11282231869285" lon="0.8037183197002425"><ele>373.5</ele><time>2026-04-01T14:08:12Z</time></trkpt><trkpt lat="43.112822389529164" lon="0.8040424488969306"><ele>373.0</ele><time>2026-04-01T14:08:13Z</time></trkpt><trkpt lat="43.1128245691055" lon="0.8043652862957157"><ele>373.0</ele><time>2026-04-01T14:08:14Z</time></trkpt><trkpt lat="43.11282633049306" lon="0.804689129081676"><ele>373.0</ele><time>2026-04-01T14:08:15Z</time></trkpt><trkpt lat="43.112827879378365" lon="0.805014889678546"><ele>374.0</ele><time>2026-04-01T14:08:16Z</time></trkpt><trkpt lat="43.1128315912249" lon="0.8053467039312938"><ele>375.0</ele><time>2026-04-01T14:08:17Z</time></trkpt><trkpt lat="43.11283496122337" lon="0.805691280253689"><ele>375.0</ele><time>2026-04-01T14:08:18Z</time></trkpt><trkpt lat="43.112836805065434" lon="0.8060529904199896"><ele>375.0</ele><time>2026-04-01T14:08:19Z</time></trkpt><trkpt lat="43.1128368467986" lon="0.8064282858586608"><ele>375.0</ele><time>2026-04-01T14:08:20Z</time></trkpt><trkpt lat="43.112838952206666" lon="0.806788784189571"><ele>375.0</ele><time>2026-04-01T14:08:21Z</time></trkpt><trkpt lat="43.11284064177982" lon="0.8071371766707719"><ele>374.5</ele><time>2026-04-01T14:08:22Z</time></trkpt><trkpt lat="43.11283903718593" lon="0.8074759842215803"><ele>374.0</ele><time>2026-04-01T14:08:23Z</time></trkpt><trkpt lat="43.112839322574615" lon="0.8078080181932975"><ele>373.5</ele><time>2026-04-01T14:08:24Z</time></trkpt><trkpt lat="43.112842464286096" lon="0.8081358920329886"><ele>373.0</ele><time>2026-04-01T14:08:25Z</time></trkpt><trkpt lat="43.11284542101741" lon="0.8084593353268035"><ele>372.5</ele><time>2026-04-01T14:08:26Z</time></trkpt><trkpt lat="43.11284777603787" lon="0.8087778806756337"><ele>372.0</ele><time>2026-04-01T14:08:27Z</time></trkpt><trkpt lat="43.11284885569902" lon="0.8090937557680178"><ele>372.0</ele><time>2026-04-01T14:08:28Z</time></trkpt><trkpt lat="43.11284958878909" lon="0.8094053909556806"><ele>372.0</ele><time>2026-04-01T14:08:29Z</time></trkpt><trkpt lat="43.11285137788532" lon="0.8097181157592218"><ele>372.0</ele><time>2026-04-01T14:08:30Z</time></trkpt><trkpt lat="43.112851908899856" lon="0.810026974850144"><ele>372.0</ele><time>2026-04-01T14:08:31Z</time></trkpt><trkpt lat="43.11285177529547" lon="0.8103350399625668"><ele>371.6666666666667</ele><time>2026-04-01T14:08:32Z</time></trkpt><trkpt lat="43.11285351287669" lon="0.810645170545832"><ele>371.33333333333337</ele><time>2026-04-01T14:08:33Z</time></trkpt><trkpt lat="43.11285737213896" lon="0.8109505824529584"><ele>371.0</ele><time>2026-04-01T14:08:34Z</time></trkpt><trkpt lat="43.11285914837931" lon="0.8112536655819249"><ele>371.0</ele><time>2026-04-01T14:08:35Z</time></trkpt><trkpt lat="43.11285961885395" lon="0.8115406833663621"><ele>371.0</ele><time>2026-04-01T14:08:36Z</time></trkpt><trkpt lat="43.112860239161805" lon="0.8118102519065524"><ele>371.0</ele><time>2026-04-01T14:08:37Z</time></trkpt><trkpt lat="43.11285700352019" lon="0.8120685955436746"><ele>371.0</ele><time>2026-04-01T14:08:38Z</time></trkpt><trkpt lat="43.112847083396986" lon="0.812312725040281"><ele>371.0</ele><time>2026-04-01T14:08:39Z</time></trkpt><trkpt lat="43.11283082474431" lon="0.8125363712981846"><ele>371.0</ele><time>2026-04-01T14:08:40Z</time></trkpt><trkpt lat="43.11281132179444" lon="0.8127462929204892"><ele>371.75</ele><time>2026-04-01T14:08:41Z</time></trkpt><trkpt lat="43.11278327738552" lon="0.812930752363533"><ele>372.5</ele><time>2026-04-01T14:08:42Z</time></trkpt><trkpt lat="43.11274918604791" lon="0.8130815499591789"><ele>373.25</ele><time>2026-04-01T14:08:43Z</time></trkpt><trkpt lat="43.1127509439747" lon="0.8132340510505445"><ele>374.0</ele><time>2026-04-01T14:08:44Z</time></trkpt><trkpt lat="43.11278681065331" lon="0.813376719653866"><ele>373.75</ele><time>2026-04-01T14:08:45Z</time></trkpt><trkpt lat="43.11283417979784" lon="0.8135533213741285"><ele>373.5</ele><time>2026-04-01T14:08:46Z</time></trkpt><trkpt lat="43.1128545468592" lon="0.8137533906527654"><ele>373.25</ele><time>2026-04-01T14:08:47Z</time></trkpt><trkpt lat="43.11285556444211" lon="0.8139788724688443"><ele>373.0</ele><time>2026-04-01T14:08:48Z</time></trkpt><trkpt lat="43.112860140229586" lon="0.81423007021148"><ele>372.3333333333333</ele><time>2026-04-01T14:08:49Z</time></trkpt><trkpt lat="43.112859060193315" lon="0.8144962321833182"><ele>371.6666666666667</ele><time>2026-04-01T14:08:50Z</time></trkpt><trkpt lat="43.112858152048425" lon="0.8147610437741379"><ele>371.0</ele><time>2026-04-01T14:08:51Z</time></trkpt><trkpt lat="43.112863812375984" lon="0.8150426527822147"><ele>370.6666666666667</ele><time>2026-04-01T14:08:52Z</time></trkpt><trkpt lat="43.11287093754725" lon="0.815331451044485"><ele>370.3333333333333</ele><time>2026-04-01T14:08:53Z</time></trkpt><trkpt lat="43.11287438585727" lon="0.8156257922288855"><ele>370.0</ele><time>2026-04-01T14:08:54Z</time></trkpt><trkpt lat="43.11287610216568" lon="0.8159295900282364"><ele>370.0</ele><time>2026-04-01T14:08:55Z</time></trkpt><trkpt lat="43.11288028382156" lon="0.8162397980362877"><ele>370.0</ele><time>2026-04-01T14:08:56Z</time></trkpt><trkpt lat="43.11288265775868" lon="0.8165540795685191"><ele>369.5</ele><time>2026-04-01T14:08:57Z</time></trkpt><trkpt lat="43.112885227757246" lon="0.8168718190282598"><ele>369.0</ele><time>2026-04-01T14:08:58Z</time></trkpt><trkpt lat="43.112888829272606" lon="0.8171966921237217"><ele>369.0</ele><time>2026-04-01T14:08:59Z</time></trkpt><trkpt lat="43.112888447558895" lon="0.8175212815507377"><ele>369.0</ele><time>2026-04-01T14:09:00Z</time></trkpt><trkpt lat="43.11288556921236" lon="0.8178524137580513"><ele>369.5</ele><time>2026-04-01T14:09:01Z</time></trkpt><trkpt lat="43.11288179550404" lon="0.8181877939962836"><ele>370.0</ele><time>2026-04-01T14:09:02Z</time></trkpt><trkpt lat="43.112878541385655" lon="0.8185259787935204"><ele>370.5</ele><time>2026-04-01T14:09:03Z</time></trkpt><trkpt lat="43.11287999481305" lon="0.8188694329228821"><ele>371.0</ele><time>2026-04-01T14:09:04Z</time></trkpt><trkpt lat="43.11288524539412" lon="0.819212890138831"><ele>370.5</ele><time>2026-04-01T14:09:05Z</time></trkpt><trkpt lat="43.11288738377405" lon="0.8195589651947144"><ele>370.0</ele><time>2026-04-01T14:09:06Z</time></trkpt><trkpt lat="43.11288775603302" lon="0.8199041066754217"><ele>369.0</ele><time>2026-04-01T14:09:07Z</time></trkpt><trkpt lat="43.11288758779194" lon="0.8202555924083544"><ele>368.0</ele><time>2026-04-01T14:09:08Z</time></trkpt><trkpt lat="43.11288800781825" lon="0.8206064800955353"><ele>368.0</ele><time>2026-04-01T14:09:09Z</time></trkpt><trkpt lat="43.11288972278959" lon="0.820957682903669"><ele>368.0</ele><time>2026-04-01T14:09:10Z</time></trkpt><trkpt lat="43.112892441182524" lon="0.8213077146114778"><ele>368.0</ele><time>2026-04-01T14:09:11Z</time></trkpt><trkpt lat="43.112895023594426" lon="0.8216578403825734"><ele>368.0</ele><time>2026-04-01T14:09:12Z</time></trkpt><trkpt lat="43.11289658544874" lon="0.822005291021639"><ele>368.5</ele><time>2026-04-01T14:09:13Z</time></trkpt><trkpt lat="43.11289708188774" lon="0.8223479782410739"><ele>369.0</ele><time>2026-04-01T14:09:14Z</time></trkpt><trkpt lat="43.11289685764888" lon="0.8226901553865821"><ele>369.0</ele><time>2026-04-01T14:09:15Z</time></trkpt><trkpt lat="43.112895930584216" lon="0.8230220659139144"><ele>369.0</ele><time>2026-04-01T14:09:16Z</time></trkpt><trkpt lat="43.11289379547561" lon="0.8233335305878566"><ele>369.3333333333333</ele><time>2026-04-01T14:09:17Z</time></trkpt><trkpt lat="43.1128947418758" lon="0.8236291483401598"><ele>369.66666666666663</ele><time>2026-04-01T14:09:18Z</time></trkpt><trkpt lat="43.11289749882684" lon="0.8239065733180507"><ele>370.0</ele><time>2026-04-01T14:09:19Z</time></trkpt><trkpt lat="43.11290054273097" lon="0.824174590755421"><ele>369.66666666666663</ele><time>2026-04-01T14:09:20Z</time></trkpt><trkpt lat="43.11290124473075" lon="0.8244328249832606"><ele>369.3333333333333</ele><time>2026-04-01T14:09:21Z</time></trkpt><trkpt lat="43.112899706404505" lon="0.8246888538816135"><ele>369.0</ele><time>2026-04-01T14:09:22Z</time></trkpt><trkpt lat="43.1129022274995" lon="0.8249518862802316"><ele>369.0</ele><time>2026-04-01T14:09:23Z</time></trkpt><trkpt lat="43.11290306025076" lon="0.8252175076555063"><ele>369.0</ele><time>2026-04-01T14:09:24Z</time></trkpt><trkpt lat="43.112905222494696" lon="0.825484892557063"><ele>369.0</ele><time>2026-04-01T14:09:25Z</time></trkpt><trkpt lat="43.1129045435033" lon="0.8257527658364603"><ele>368.3333333333333</ele><time>2026-04-01T14:09:26Z</time></trkpt><trkpt lat="43.11290549535247" lon="0.8260157727977955"><ele>367.66666666666663</ele><time>2026-04-01T14:09:27Z</time></trkpt><trkpt lat="43.112909344806695" lon="0.8262746163533267"><ele>367.0</ele><time>2026-04-01T14:09:28Z</time></trkpt><trkpt lat="43.112911581329776" lon="0.8265369002260705"><ele>367.0</ele><time>2026-04-01T14:09:29Z</time></trkpt><trkpt lat="43.112908494139994" lon="0.8268013867151628"><ele>367.0</ele><time>2026-04-01T14:09:30Z</time></trkpt><trkpt lat="43.11290820593369" lon="0.8270668968979036"><ele>367.0</ele><time>2026-04-01T14:09:31Z</time></trkpt><trkpt lat="43.11290828254958" lon="0.8273296546146185"><ele>366.66666666666663</ele><time>2026-04-01T14:09:32Z</time></trkpt><trkpt lat="43.112909694841825" lon="0.8275863223535828"><ele>366.3333333333333</ele><time>2026-04-01T14:09:33Z</time></trkpt><trkpt lat="43.112909352469245" lon="0.8278473315656202"><ele>366.0</ele><time>2026-04-01T14:09:34Z</time></trkpt><trkpt lat="43.11291059936657" lon="0.8281172424162542"><ele>366.6666666666667</ele><time>2026-04-01T14:09:35Z</time></trkpt><trkpt lat="43.112915155093944" lon="0.8283867972910056"><ele>367.33333333333337</ele><time>2026-04-01T14:09:36Z</time></trkpt><trkpt lat="43.112917394137384" lon="0.828659987718229"><ele>368.0</ele><time>2026-04-01T14:09:37Z</time></trkpt><trkpt lat="43.11291554519141" lon="0.8289397071919858"><ele>368.0</ele><time>2026-04-01T14:09:38Z</time></trkpt><trkpt lat="43.11291578489019" lon="0.8292234509717653"><ele>368.0</ele><time>2026-04-01T14:09:39Z</time></trkpt><trkpt lat="43.11291729496542" lon="0.8295093972590646"><ele>368.0</ele><time>2026-04-01T14:09:40Z</time></trkpt><trkpt lat="43.11291792858159" lon="0.8297936913393267"><ele>367.0</ele><time>2026-04-01T14:09:41Z</time></trkpt><trkpt lat="43.112917961223246" lon="0.8300709943165555"><ele>366.0</ele><time>2026-04-01T14:09:42Z</time></trkpt><trkpt lat="43.11291528022518" lon="0.830344877585708"><ele>365.0</ele><time>2026-04-01T14:09:43Z</time></trkpt><trkpt lat="43.112913745587306" lon="0.8306187244440439"><ele>365.0</ele><time>2026-04-01T14:09:44Z</time></trkpt><trkpt lat="43.112911811994856" lon="0.8308887809258254"><ele>365.0</ele><time>2026-04-01T14:09:45Z</time></trkpt><trkpt lat="43.11291245538761" lon="0.8311539153559956"><ele>365.0</ele><time>2026-04-01T14:09:46Z</time></trkpt><trkpt lat="43.1129160200995" lon="0.8314170598144053"><ele>365.0</ele><time>2026-04-01T14:09:47Z</time></trkpt><trkpt lat="43.112918612872704" lon="0.8316708879615796"><ele>365.0</ele><time>2026-04-01T14:09:48Z</time></trkpt><trkpt lat="43.11291940959303" lon="0.8319216051569188"><ele>365.0</ele><time>2026-04-01T14:09:49Z</time></trkpt><trkpt lat="43.11291889146531" lon="0.8321674996550398"><ele>365.0</ele><time>2026-04-01T14:09:50Z</time></trkpt><trkpt lat="43.112918448178014" lon="0.832409429660009"><ele>365.0</ele><time>2026-04-01T14:09:51Z</time></trkpt><trkpt lat="43.112920212689524" lon="0.8326510025107473"><ele>365.0</ele><time>2026-04-01T14:09:52Z</time></trkpt><trkpt lat="43.11292248422157" lon="0.832892710301904"><ele>364.33333333333337</ele><time>2026-04-01T14:09:53Z</time></trkpt><trkpt lat="43.112924981929694" lon="0.8331360970160068"><ele>363.6666666666667</ele><time>2026-04-01T14:09:54Z</time></trkpt><trkpt lat="43.112926990440386" lon="0.833383497665832"><ele>363.0</ele><time>2026-04-01T14:09:55Z</time></trkpt><trkpt lat="43.11293136150147" lon="0.8336293646879276"><ele>363.0</ele><time>2026-04-01T14:09:56Z</time></trkpt><trkpt lat="43.11293858913105" lon="0.8338823956732171"><ele>363.0</ele><time>2026-04-01T14:09:57Z</time></trkpt><trkpt lat="43.11293679390236" lon="0.8341334334249474"><ele>363.0</ele><time>2026-04-01T14:09:58Z</time></trkpt><trkpt lat="43.11293302758477" lon="0.8343866679178453"><ele>363.0</ele><time>2026-04-01T14:09:59Z</time></trkpt><trkpt lat="43.11293091701085" lon="0.8346439964150352"><ele>363.0</ele><time>2026-04-01T14:10:00Z</time></trkpt><trkpt lat="43.112933738338064" lon="0.8349081270790406"><ele>363.0</ele><time>2026-04-01T14:10:01Z</time></trkpt><trkpt lat="43.11293673176041" lon="0.8351726395334742"><ele>363.0</ele><time>2026-04-01T14:10:02Z</time></trkpt><trkpt lat="43.112940359651965" lon="0.8354408015780078"><ele>363.0</ele><time>2026-04-01T14:10:03Z</time></trkpt><trkpt lat="43.1129438196825" lon="0.8357135467596262"><ele>363.0</ele><time>2026-04-01T14:10:04Z</time></trkpt><trkpt lat="43.11294663262902" lon="0.8359855446132657"><ele>363.3333333333333</ele><time>2026-04-01T14:10:05Z</time></trkpt><trkpt lat="43.11294695036935" lon="0.8362598359505001"><ele>363.66666666666663</ele><time>2026-04-01T14:10:06Z</time></trkpt><trkpt lat="43.11294608074295" lon="0.8365367573852974"><ele>364.0</ele><time>2026-04-01T14:10:07Z</time></trkpt><trkpt lat="43.112946271322144" lon="0.8368102651016027"><ele>363.3333333333333</ele><time>2026-04-01T14:10:08Z</time></trkpt><trkpt lat="43.1129462002875" lon="0.8370704434198316"><ele>362.6666666666667</ele><time>2026-04-01T14:10:09Z</time></trkpt><trkpt lat="43.11294823323286" lon="0.8373216548133833"><ele>362.0</ele><time>2026-04-01T14:10:10Z</time></trkpt><trkpt lat="43.112951081554456" lon="0.8375685684115844"><ele>361.6666666666667</ele><time>2026-04-01T14:10:11Z</time></trkpt><trkpt lat="43.11295083080248" lon="0.8378162887561317"><ele>361.3333333333333</ele><time>2026-04-01T14:10:12Z</time></trkpt><trkpt lat="43.11294967056204" lon="0.8380580415399693"><ele>361.0</ele><time>2026-04-01T14:10:13Z</time></trkpt><trkpt lat="43.112948789882005" lon="0.838287388503025"><ele>360.3333333333333</ele><time>2026-04-01T14:10:14Z</time></trkpt><trkpt lat="43.11295388916114" lon="0.8385085855222608"><ele>359.6666666666667</ele><time>2026-04-01T14:10:15Z</time></trkpt><trkpt lat="43.112962023634275" lon="0.8387159878202687"><ele>359.0</ele><time>2026-04-01T14:10:16Z</time></trkpt><trkpt lat="43.11297165885519" lon="0.8389147987040884"><ele>359.0</ele><time>2026-04-01T14:10:17Z</time></trkpt><trkpt lat="43.11297812528656" lon="0.8391012012418605"><ele>359.0</ele><time>2026-04-01T14:10:18Z</time></trkpt><trkpt lat="43.1129805431743" lon="0.839277682495263"><ele>359.0</ele><time>2026-04-01T14:10:19Z</time></trkpt><trkpt lat="43.112982399335934" lon="0.8394426598831817"><ele>359.0</ele><time>2026-04-01T14:10:20Z</time></trkpt><trkpt lat="43.11298186950262" lon="0.839597344875641"><ele>359.0</ele><time>2026-04-01T14:10:21Z</time></trkpt><trkpt lat="43.11298188991593" lon="0.8397442754150913"><ele>359.0</ele><time>2026-04-01T14:10:22Z</time></trkpt><trkpt lat="43.11298228703161" lon="0.8398813332025248"><ele>359.0</ele><time>2026-04-01T14:10:23Z</time></trkpt><trkpt lat="43.11298275286337" lon="0.8400103243081499"><ele>359.0</ele><time>2026-04-01T14:10:24Z</time></trkpt><trkpt lat="43.11298474502108" lon="0.8401315052389371"><ele>359.0</ele><time>2026-04-01T14:10:25Z</time></trkpt><trkpt lat="43.11298351688768" lon="0.840242314288764"><ele>359.2</ele><time>2026-04-01T14:10:26Z</time></trkpt><trkpt lat="43.1129806826944" lon="0.8403438014468082"><ele>359.4</ele><time>2026-04-01T14:10:27Z</time></trkpt><trkpt lat="43.11298081788573" lon="0.8404433031604555"><ele>359.6</ele><time>2026-04-01T14:10:28Z</time></trkpt><trkpt lat="43.11298412872427" lon="0.8406010667202123"><ele>359.8</ele><time>2026-04-01T14:10:29Z</time></trkpt><trkpt lat="43.11298712834844" lon="0.8407543847404507"><ele>360.0</ele><time>2026-04-01T14:10:30Z</time></trkpt><trkpt lat="43.11297538305893" lon="0.8409483933224818"><ele>359.6666666666667</ele><time>2026-04-01T14:10:31Z</time></trkpt><trkpt lat="43.1129579691569" lon="0.8411863102684414"><ele>359.33333333333337</ele><time>2026-04-01T14:10:32Z</time></trkpt><trkpt lat="43.112950778037956" lon="0.8414233086432237"><ele>359.0</ele><time>2026-04-01T14:10:33Z</time></trkpt><trkpt lat="43.1129547175868" lon="0.8416981718684535"><ele>359.33333333333337</ele><time>2026-04-01T14:10:34Z</time></trkpt><trkpt lat="43.11295762565764" lon="0.8419995296797869"><ele>359.6666666666667</ele><time>2026-04-01T14:10:35Z</time></trkpt><trkpt lat="43.11295496880659" lon="0.8422758797625303"><ele>360.0</ele><time>2026-04-01T14:10:36Z</time></trkpt><trkpt lat="43.112953771455736" lon="0.8425415898629114"><ele>358.6666666666667</ele><time>2026-04-01T14:10:37Z</time></trkpt><trkpt lat="43.112957093317064" lon="0.8428252245956894"><ele>357.33333333333337</ele><time>2026-04-01T14:10:38Z</time></trkpt><trkpt lat="43.112957720767305" lon="0.8431403464197214"><ele>356.0</ele><time>2026-04-01T14:10:39Z</time></trkpt><trkpt lat="43.112956136679045" lon="0.84343852165911"><ele>356.0</ele><time>2026-04-01T14:10:40Z</time></trkpt><trkpt lat="43.112954936485444" lon="0.8437431609649162"><ele>356.0</ele><time>2026-04-01T14:10:41Z</time></trkpt><trkpt lat="43.11295387390202" lon="0.8440512663057167"><ele>356.0</ele><time>2026-04-01T14:10:42Z</time></trkpt><trkpt lat="43.11295299600016" lon="0.8443583304043479"><ele>356.0</ele><time>2026-04-01T14:10:43Z</time></trkpt><trkpt lat="43.11295297236071" lon="0.8446679766280017"><ele>356.0</ele><time>2026-04-01T14:10:44Z</time></trkpt><trkpt lat="43.112956251586304" lon="0.8449786616394847"><ele>355.33333333333337</ele><time>2026-04-01T14:10:45Z</time></trkpt><trkpt lat="43.11295871574161" lon="0.8452835937782578"><ele>354.6666666666667</ele><time>2026-04-01T14:10:46Z</time></trkpt><trkpt lat="43.11296163561477" lon="0.8455829196667604"><ele>354.0</ele><time>2026-04-01T14:10:47Z</time></trkpt><trkpt lat="43.11296252816349" lon="0.845873799840768"><ele>354.0</ele><time>2026-04-01T14:10:48Z</time></trkpt><trkpt lat="43.11296196360713" lon="0.8461655239676985"><ele>354.0</ele><time>2026-04-01T14:10:49Z</time></trkpt><trkpt lat="43.11296173918631" lon="0.8464523264863525"><ele>354.0</ele><time>2026-04-01T14:10:50Z</time></trkpt><trkpt lat="43.1129641423392" lon="0.8467415887607856"><ele>354.6666666666667</ele><time>2026-04-01T14:10:51Z</time></trkpt><trkpt lat="43.11296777791034" lon="0.8470283209199336"><ele>355.33333333333337</ele><time>2026-04-01T14:10:52Z</time></trkpt><trkpt lat="43.11296993104131" lon="0.8473131018943214"><ele>356.0</ele><time>2026-04-01T14:10:53Z</time></trkpt><trkpt lat="43.11296419478773" lon="0.8475967467607174"><ele>356.0</ele><time>2026-04-01T14:10:54Z</time></trkpt><trkpt lat="43.11294796661302" lon="0.8478772858594847"><ele>356.0</ele><time>2026-04-01T14:10:55Z</time></trkpt><trkpt lat="43.11292033052933" lon="0.8482205176691041"><ele>354.5</ele><time>2026-04-01T14:10:56Z</time></trkpt><trkpt lat="43.11288402789449" lon="0.8485208755455798"><ele>353.0</ele><time>2026-04-01T14:10:57Z</time></trkpt><trkpt lat="43.11284002985192" lon="0.8488288452383311"><ele>353.0</ele><time>2026-04-01T14:10:58Z</time></trkpt><trkpt lat="43.11279385043502" lon="0.8491613826205631"><ele>353.0</ele><time>2026-04-01T14:10:59Z</time></trkpt><trkpt lat="43.112745116226776" lon="0.8495128629197133"><ele>350.5</ele><time>2026-04-01T14:11:00Z</time></trkpt><trkpt lat="43.112696336605055" lon="0.8498727898143272"><ele>348.0</ele><time>2026-04-01T14:11:01Z</time></trkpt><trkpt lat="43.11264769491368" lon="0.8502398842379048"><ele>345.0</ele><time>2026-04-01T14:11:02Z</time></trkpt><trkpt lat="43.11259685016719" lon="0.8506040489531653"><ele>342.0</ele><time>2026-04-01T14:11:03Z</time></trkpt><trkpt lat="43.11254396819272" lon="0.8509699349102797"><ele>339.5</ele><time>2026-04-01T14:11:04Z</time></trkpt><trkpt lat="43.11248981492955" lon="0.8513362448231881"><ele>337.0</ele><time>2026-04-01T14:11:05Z</time></trkpt><trkpt lat="43.11243338279606" lon="0.851700850234419"><ele>335.0</ele><time>2026-04-01T14:11:06Z</time></trkpt><trkpt lat="43.11237711489822" lon="0.8520603909215354"><ele>333.0</ele><time>2026-04-01T14:11:07Z</time></trkpt><trkpt lat="43.11232492931646" lon="0.8524223332772081"><ele>332.0</ele><time>2026-04-01T14:11:08Z</time></trkpt><trkpt lat="43.11227303652527" lon="0.8527892848579144"><ele>331.0</ele><time>2026-04-01T14:11:09Z</time></trkpt><trkpt lat="43.11222003127475" lon="0.8531744875483123"><ele>330.0</ele><time>2026-04-01T14:11:10Z</time></trkpt><trkpt lat="43.11216313909996" lon="0.8535681994733815"><ele>329.0</ele><time>2026-04-01T14:11:11Z</time></trkpt><trkpt lat="43.11210477924967" lon="0.8539810158976393"><ele>328.0</ele><time>2026-04-01T14:11:12Z</time></trkpt><trkpt lat="43.112045780583806" lon="0.8543990379951865"><ele>327.0</ele><time>2026-04-01T14:11:13Z</time></trkpt><trkpt lat="43.1119865887767" lon="0.8548211939453849"><ele>327.0</ele><time>2026-04-01T14:11:14Z</time></trkpt><trkpt lat="43.11192658803338" lon="0.8552464111223883"><ele>327.0</ele><time>2026-04-01T14:11:15Z</time></trkpt><trkpt lat="43.11186702624867" lon="0.8556784548325946"><ele>326.5</ele><time>2026-04-01T14:11:16Z</time></trkpt><trkpt lat="43.11180895566822" lon="0.8560871571975789"><ele>326.0</ele><time>2026-04-01T14:11:17Z</time></trkpt><trkpt lat="43.11175424228933" lon="0.8564824136687781"><ele>325.0</ele><time>2026-04-01T14:11:18Z</time></trkpt><trkpt lat="43.11169964595801" lon="0.8568647295353491"><ele>324.0</ele><time>2026-04-01T14:11:19Z</time></trkpt><trkpt lat="43.11164534381901" lon="0.8572455812347154"><ele>324.0</ele><time>2026-04-01T14:11:20Z</time></trkpt><trkpt lat="43.11159446942989" lon="0.8576203196187773"><ele>324.0</ele><time>2026-04-01T14:11:21Z</time></trkpt><trkpt lat="43.111542721376885" lon="0.8579927164533553"><ele>324.5</ele><time>2026-04-01T14:11:22Z</time></trkpt><trkpt lat="43.11149139982137" lon="0.8583577326191326"><ele>325.0</ele><time>2026-04-01T14:11:23Z</time></trkpt><trkpt lat="43.111440034936884" lon="0.8587208933673892"><ele>327.0</ele><time>2026-04-01T14:11:24Z</time></trkpt><trkpt lat="43.11139151648973" lon="0.8590772975693067"><ele>329.0</ele><time>2026-04-01T14:11:25Z</time></trkpt><trkpt lat="43.11134453370039" lon="0.859429905509451"><ele>329.0</ele><time>2026-04-01T14:11:26Z</time></trkpt><trkpt lat="43.11129382225115" lon="0.8597859992942202"><ele>329.0</ele><time>2026-04-01T14:11:27Z</time></trkpt><trkpt lat="43.111240714254414" lon="0.8601384483585214"><ele>327.5</ele><time>2026-04-01T14:11:28Z</time></trkpt><trkpt lat="43.11118568890071" lon="0.8604890284352787"><ele>326.0</ele><time>2026-04-01T14:11:29Z</time></trkpt><trkpt lat="43.11113732597933" lon="0.8608348686645269"><ele>326.0</ele><time>2026-04-01T14:11:30Z</time></trkpt><trkpt lat="43.111091587955485" lon="0.8611814631308286"><ele>326.0</ele><time>2026-04-01T14:11:31Z</time></trkpt><trkpt lat="43.11104431360494" lon="0.8615273243857551"><ele>326.5</ele><time>2026-04-01T14:11:32Z</time></trkpt><trkpt lat="43.110998687989685" lon="0.8618683274748195"><ele>327.0</ele><time>2026-04-01T14:11:33Z</time></trkpt><trkpt lat="43.11095079943181" lon="0.8622083305754972"><ele>327.0</ele><time>2026-04-01T14:11:34Z</time></trkpt><trkpt lat="43.11089213963082" lon="0.862535794350881"><ele>327.0</ele><time>2026-04-01T14:11:35Z</time></trkpt><trkpt lat="43.110833878039735" lon="0.8628601276730989"><ele>327.0</ele><time>2026-04-01T14:11:36Z</time></trkpt><trkpt lat="43.11078492971851" lon="0.8631893304346622"><ele>327.0</ele><time>2026-04-01T14:11:37Z</time></trkpt><trkpt lat="43.1107401674969" lon="0.8635226327213131"><ele>323.5</ele><time>2026-04-01T14:11:38Z</time></trkpt><trkpt lat="43.1106960922783" lon="0.8638556858626528"><ele>320.0</ele><time>2026-04-01T14:11:39Z</time></trkpt><trkpt lat="43.11065144880659" lon="0.8641773290564742"><ele>320.33333333333337</ele><time>2026-04-01T14:11:40Z</time></trkpt><trkpt lat="43.11061767595248" lon="0.8644382821917138"><ele>320.6666666666667</ele><time>2026-04-01T14:11:41Z</time></trkpt><trkpt lat="43.110583764148274" lon="0.8647072619222683"><ele>321.0</ele><time>2026-04-01T14:11:42Z</time></trkpt><trkpt lat="43.11054944238542" lon="0.864962017862014"><ele>321.3333333333333</ele><time>2026-04-01T14:11:43Z</time></trkpt><trkpt lat="43.110511100428276" lon="0.8652133451113833"><ele>321.66666666666663</ele><time>2026-04-01T14:11:44Z</time></trkpt><trkpt lat="43.1104775135739" lon="0.865440489671801"><ele>322.0</ele><time>2026-04-01T14:11:45Z</time></trkpt><trkpt lat="43.110462932273734" lon="0.8656581434468827"><ele>322.0</ele><time>2026-04-01T14:11:46Z</time></trkpt><trkpt lat="43.11045790858317" lon="0.8658704072370411"><ele>322.0</ele><time>2026-04-01T14:11:47Z</time></trkpt><trkpt lat="43.11043341731512" lon="0.8660688097541618"><ele>322.0</ele><time>2026-04-01T14:11:48Z</time></trkpt><trkpt lat="43.11040312928482" lon="0.8662448387222642"><ele>322.0</ele><time>2026-04-01T14:11:49Z</time></trkpt><trkpt lat="43.110382741313046" lon="0.8663967530279006"><ele>322.16666666666663</ele><time>2026-04-01T14:11:50Z</time></trkpt><trkpt lat="43.11036266114405" lon="0.866517399294131"><ele>322.3333333333333</ele><time>2026-04-01T14:11:51Z</time></trkpt><trkpt lat="43.11034138320733" lon="0.8666232954932868"><ele>322.5</ele><time>2026-04-01T14:11:52Z</time></trkpt><trkpt lat="43.110325073440606" lon="0.8667223936459356"><ele>322.6666666666667</ele><time>2026-04-01T14:11:53Z</time></trkpt><trkpt lat="43.11028140168516" lon="0.8668696608437055"><ele>322.83333333333337</ele><time>2026-04-01T14:11:55Z</time></trkpt><trkpt lat="43.110206185875036" lon="0.8669077093085977"><ele>323.0</ele><time>2026-04-01T14:11:59Z</time></trkpt><trkpt lat="43.11012508343421" lon="0.8668788558703684"><ele>323.0</ele><time>2026-04-01T14:12:02Z</time></trkpt><trkpt lat="43.11010344142676" lon="0.8667803949384455"><ele>323.0</ele><time>2026-04-01T14:12:05Z</time></trkpt><trkpt lat="43.11017576328959" lon="0.8667736076513614"><ele>323.0</ele><time>2026-04-01T14:12:08Z</time></trkpt><trkpt lat="43.11024105935913" lon="0.8668885225340347"><ele>323.0</ele><time>2026-04-01T14:12:10Z</time></trkpt><trkpt lat="43.110293431479356" lon="0.8670136220755309"><ele>323.0</ele><time>2026-04-01T14:12:14Z</time></trkpt><trkpt lat="43.1102537639535" lon="0.8671231196846693"><ele>323.0</ele><time>2026-04-01T14:12:15Z</time></trkpt><trkpt lat="43.110234737739816" lon="0.8672096172448892"><ele>323.0</ele><time>2026-04-01T14:12:16Z</time></trkpt><trkpt lat="43.11021835867801" lon="0.8673187402961281"><ele>323.0</ele><time>2026-04-01T14:12:17Z</time></trkpt><trkpt lat="43.110201527152505" lon="0.8674581952468301"><ele>323.0</ele><time>2026-04-01T14:12:18Z</time></trkpt><trkpt lat="43.11017990169774" lon="0.8676302785935157"><ele>323.0</ele><time>2026-04-01T14:12:19Z</time></trkpt><trkpt lat="43.11015555667552" lon="0.8678221522533436"><ele>323.0</ele><time>2026-04-01T14:12:20Z</time></trkpt><trkpt lat="43.11012822754826" lon="0.868040009213462"><ele>323.0</ele><time>2026-04-01T14:12:21Z</time></trkpt><trkpt lat="43.110105471124506" lon="0.8682705715916722"><ele>323.0</ele><time>2026-04-01T14:12:22Z</time></trkpt><trkpt lat="43.11007331472148" lon="0.8685311696968319"><ele>323.0</ele><time>2026-04-01T14:12:23Z</time></trkpt><trkpt lat="43.11002955250536" lon="0.8687967692743711"><ele>323.0</ele><time>2026-04-01T14:12:24Z</time></trkpt><trkpt lat="43.1099887356055" lon="0.8690760078020053"><ele>323.0</ele><time>2026-04-01T14:12:25Z</time></trkpt><trkpt lat="43.10994959383084" lon="0.8693620850026805"><ele>322.33333333333337</ele><time>2026-04-01T14:12:26Z</time></trkpt><trkpt lat="43.109908631344965" lon="0.8696460970254575"><ele>321.6666666666667</ele><time>2026-04-01T14:12:27Z</time></trkpt><trkpt lat="43.10986890474269" lon="0.8699212992553542"><ele>321.0</ele><time>2026-04-01T14:12:28Z</time></trkpt><trkpt lat="43.10983041135738" lon="0.8701922682264753"><ele>321.0</ele><time>2026-04-01T14:12:29Z</time></trkpt><trkpt lat="43.10979203852622" lon="0.8704583326049818"><ele>321.0</ele><time>2026-04-01T14:12:30Z</time></trkpt><trkpt lat="43.10975448277602" lon="0.8707163233360372"><ele>321.0</ele><time>2026-04-01T14:12:31Z</time></trkpt><trkpt lat="43.10971854003226" lon="0.8709670948976992"><ele>320.6666666666667</ele><time>2026-04-01T14:12:32Z</time></trkpt><trkpt lat="43.109682183364285" lon="0.8712014996009679"><ele>320.33333333333337</ele><time>2026-04-01T14:12:33Z</time></trkpt><trkpt lat="43.109639990087096" lon="0.8714266988546648"><ele>320.0</ele><time>2026-04-01T14:12:34Z</time></trkpt><trkpt lat="43.10960373780146" lon="0.8716402028661342"><ele>320.6666666666667</ele><time>2026-04-01T14:12:35Z</time></trkpt><trkpt lat="43.109584293987815" lon="0.8718443117144696"><ele>321.3333333333333</ele><time>2026-04-01T14:12:36Z</time></trkpt><trkpt lat="43.10956625928537" lon="0.872052365431231"><ele>322.0</ele><time>2026-04-01T14:12:37Z</time></trkpt><trkpt lat="43.10953750058455" lon="0.8722688382072076"><ele>322.0</ele><time>2026-04-01T14:12:38Z</time></trkpt><trkpt lat="43.109501857230015" lon="0.8724877915420266"><ele>322.0</ele><time>2026-04-01T14:12:39Z</time></trkpt><trkpt lat="43.109463829322245" lon="0.8727040363350124"><ele>322.0</ele><time>2026-04-01T14:12:40Z</time></trkpt><trkpt lat="43.10942766872704" lon="0.8729238885455359"><ele>322.0</ele><time>2026-04-01T14:12:41Z</time></trkpt><trkpt lat="43.109392257457266" lon="0.8731451965384257"><ele>322.0</ele><time>2026-04-01T14:12:42Z</time></trkpt><trkpt lat="43.109356705449805" lon="0.8733650686824633"><ele>322.0</ele><time>2026-04-01T14:12:43Z</time></trkpt><trkpt lat="43.109325752283844" lon="0.8735875142942552"><ele>321.3333333333333</ele><time>2026-04-01T14:12:44Z</time></trkpt><trkpt lat="43.10930428040494" lon="0.873816125386439"><ele>320.6666666666667</ele><time>2026-04-01T14:12:45Z</time></trkpt><trkpt lat="43.1092848137368" lon="0.8740472536088539"><ele>320.0</ele><time>2026-04-01T14:12:46Z</time></trkpt><trkpt lat="43.109275760134615" lon="0.8742797473481996"><ele>319.33333333333337</ele><time>2026-04-01T14:12:47Z</time></trkpt><trkpt lat="43.10928197019034" lon="0.874515832837261"><ele>318.6666666666667</ele><time>2026-04-01T14:12:48Z</time></trkpt><trkpt lat="43.109301812379634" lon="0.8747523903982732"><ele>318.0</ele><time>2026-04-01T14:12:49Z</time></trkpt><trkpt lat="43.109334307094" lon="0.8749943167014816"><ele>317.3333333333333</ele><time>2026-04-01T14:12:50Z</time></trkpt><trkpt lat="43.10938348193015" lon="0.8752374559820628"><ele>316.66666666666663</ele><time>2026-04-01T14:12:51Z</time></trkpt><trkpt lat="43.10944920356227" lon="0.8754856336939253"><ele>316.0</ele><time>2026-04-01T14:12:52Z</time></trkpt><trkpt lat="43.10952410274259" lon="0.8757367318806708"><ele>315.3333333333333</ele><time>2026-04-01T14:12:53Z</time></trkpt><trkpt lat="43.109605991317714" lon="0.8759864803486744"><ele>314.6666666666667</ele><time>2026-04-01T14:12:54Z</time></trkpt><trkpt lat="43.10969362004632" lon="0.8762410783210122"><ele>314.0</ele><time>2026-04-01T14:12:55Z</time></trkpt><trkpt lat="43.109781379646144" lon="0.8764992833327339"><ele>314.0</ele><time>2026-04-01T14:12:56Z</time></trkpt><trkpt lat="43.10986987381172" lon="0.8767596807673463"><ele>314.0</ele><time>2026-04-01T14:12:57Z</time></trkpt><trkpt lat="43.109961361493525" lon="0.8770206389529382"><ele>314.0</ele><time>2026-04-01T14:12:58Z</time></trkpt><trkpt lat="43.11005835665907" lon="0.8772895528454866"><ele>314.0</ele><time>2026-04-01T14:12:59Z</time></trkpt><trkpt lat="43.11015457194625" lon="0.877560249058462"><ele>314.0</ele><time>2026-04-01T14:13:00Z</time></trkpt><trkpt lat="43.11025025949075" lon="0.8778332719744133"><ele>314.0</ele><time>2026-04-01T14:13:01Z</time></trkpt><trkpt lat="43.110347226961366" lon="0.8781037570203268"><ele>314.0</ele><time>2026-04-01T14:13:02Z</time></trkpt><trkpt lat="43.11044182833174" lon="0.8783715362882029"><ele>314.0</ele><time>2026-04-01T14:13:03Z</time></trkpt><trkpt lat="43.11053432693405" lon="0.8786444997287011"><ele>314.0</ele><time>2026-04-01T14:13:04Z</time></trkpt><trkpt lat="43.11062617127641" lon="0.8789140173666505"><ele>314.0</ele><time>2026-04-01T14:13:05Z</time></trkpt><trkpt lat="43.11071817740034" lon="0.8791814602053212"><ele>314.0</ele><time>2026-04-01T14:13:06Z</time></trkpt><trkpt lat="43.11081081704808" lon="0.8794485296109679"><ele>314.0</ele><time>2026-04-01T14:13:07Z</time></trkpt><trkpt lat="43.110902676811385" lon="0.8797149142852468"><ele>314.0</ele><time>2026-04-01T14:13:08Z</time></trkpt><trkpt lat="43.11099600873743" lon="0.8799853087329201"><ele>314.0</ele><time>2026-04-01T14:13:09Z</time></trkpt><trkpt lat="43.111093022526916" lon="0.8802673959051811"><ele>314.0</ele><time>2026-04-01T14:13:10Z</time></trkpt><trkpt lat="43.11119400957578" lon="0.8805521980801384"><ele>313.5</ele><time>2026-04-01T14:13:11Z</time></trkpt><trkpt lat="43.11129443377976" lon="0.8808367215019608"><ele>313.0</ele><time>2026-04-01T14:13:12Z</time></trkpt><trkpt lat="43.11139342516581" lon="0.8811199194280447"><ele>313.0</ele><time>2026-04-01T14:13:13Z</time></trkpt><trkpt lat="43.11148933810217" lon="0.8814044083501987"><ele>313.0</ele><time>2026-04-01T14:13:14Z</time></trkpt><trkpt lat="43.1115824965266" lon="0.8816918307325932"><ele>314.0</ele><time>2026-04-01T14:13:15Z</time></trkpt><trkpt lat="43.11167982744668" lon="0.8819761842650277"><ele>315.0</ele><time>2026-04-01T14:13:16Z</time></trkpt><trkpt lat="43.111779461240104" lon="0.8822649603902674"><ele>315.0</ele><time>2026-04-01T14:13:17Z</time></trkpt><trkpt lat="43.11188018744276" lon="0.8825543922535245"><ele>315.0</ele><time>2026-04-01T14:13:18Z</time></trkpt><trkpt lat="43.11198314068956" lon="0.8828451086200775"><ele>314.5</ele><time>2026-04-01T14:13:19Z</time></trkpt><trkpt lat="43.11208413633388" lon="0.8831371565375217"><ele>314.0</ele><time>2026-04-01T14:13:20Z</time></trkpt><trkpt lat="43.112183077476246" lon="0.8834297646589289"><ele>314.0</ele><time>2026-04-01T14:13:21Z</time></trkpt><trkpt lat="43.11228087007337" lon="0.8837191917069368"><ele>314.0</ele><time>2026-04-01T14:13:22Z</time></trkpt><trkpt lat="43.11237964266251" lon="0.8840091349009321"><ele>313.0</ele><time>2026-04-01T14:13:23Z</time></trkpt><trkpt lat="43.11247720550263" lon="0.8842986464395456"><ele>312.0</ele><time>2026-04-01T14:13:24Z</time></trkpt><trkpt lat="43.112574051775" lon="0.8845858069338219"><ele>312.0</ele><time>2026-04-01T14:13:25Z</time></trkpt><trkpt lat="43.11267139654875" lon="0.8848725790804328"><ele>312.0</ele><time>2026-04-01T14:13:26Z</time></trkpt><trkpt lat="43.112769897928416" lon="0.8851594318644475"><ele>312.5</ele><time>2026-04-01T14:13:27Z</time></trkpt><trkpt lat="43.11286897969882" lon="0.8854411372453971"><ele>313.0</ele><time>2026-04-01T14:13:28Z</time></trkpt><trkpt lat="43.11296479823922" lon="0.8857249245056509"><ele>312.0</ele><time>2026-04-01T14:13:29Z</time></trkpt><trkpt lat="43.11305934044139" lon="0.886008256583153"><ele>311.0</ele><time>2026-04-01T14:13:30Z</time></trkpt><trkpt lat="43.113152912711804" lon="0.8862881612144295"><ele>311.0</ele><time>2026-04-01T14:13:31Z</time></trkpt><trkpt lat="43.113246795722844" lon="0.8865691768496301"><ele>311.0</ele><time>2026-04-01T14:13:32Z</time></trkpt><trkpt lat="43.11334492450551" lon="0.8868425564115037"><ele>311.0</ele><time>2026-04-01T14:13:33Z</time></trkpt><trkpt lat="43.113438922914646" lon="0.8871179415560132"><ele>311.0</ele><time>2026-04-01T14:13:34Z</time></trkpt><trkpt lat="43.11353094723148" lon="0.8873934650172214"><ele>311.0</ele><time>2026-04-01T14:13:35Z</time></trkpt><trkpt lat="43.113621671185946" lon="0.8876700729806447"><ele>311.0</ele><time>2026-04-01T14:13:36Z</time></trkpt><trkpt lat="43.11371285054793" lon="0.8879455646278072"><ele>311.0</ele><time>2026-04-01T14:13:37Z</time></trkpt><trkpt lat="43.11380386722755" lon="0.8882164846617046"><ele>311.0</ele><time>2026-04-01T14:13:38Z</time></trkpt><trkpt lat="43.113896891465075" lon="0.8884788250733019"><ele>311.0</ele><time>2026-04-01T14:13:39Z</time></trkpt><trkpt lat="43.1139916008138" lon="0.8887449615180354"><ele>312.0</ele><time>2026-04-01T14:13:40Z</time></trkpt><trkpt lat="43.11410054980326" lon="0.8890012971700205"><ele>313.0</ele><time>2026-04-01T14:13:41Z</time></trkpt><trkpt lat="43.11422033078701" lon="0.8892409867067177"><ele>314.0</ele><time>2026-04-01T14:13:42Z</time></trkpt><trkpt lat="43.114355265373995" lon="0.8894464950681492"><ele>314.0</ele><time>2026-04-01T14:13:43Z</time></trkpt><trkpt lat="43.1144839927819" lon="0.889638820484204"><ele>314.0</ele><time>2026-04-01T14:13:44Z</time></trkpt><trkpt lat="43.11459745541944" lon="0.8898108409769232"><ele>314.0</ele><time>2026-04-01T14:13:45Z</time></trkpt><trkpt lat="43.1147022719958" lon="0.8899808816122738"><ele>314.33333333333337</ele><time>2026-04-01T14:13:46Z</time></trkpt><trkpt lat="43.11479627956224" lon="0.8901549008915988"><ele>314.6666666666667</ele><time>2026-04-01T14:13:47Z</time></trkpt><trkpt lat="43.1148917007731" lon="0.890355462352219"><ele>315.0</ele><time>2026-04-01T14:13:48Z</time></trkpt><trkpt lat="43.114974901656495" lon="0.890572083312065"><ele>315.0</ele><time>2026-04-01T14:13:49Z</time></trkpt><trkpt lat="43.11504262539258" lon="0.8908073978082905"><ele>315.0</ele><time>2026-04-01T14:13:50Z</time></trkpt><trkpt lat="43.11508890311147" lon="0.8910680507821402"><ele>315.0</ele><time>2026-04-01T14:13:51Z</time></trkpt><trkpt lat="43.11513525309603" lon="0.8913385415196015"><ele>314.3333333333333</ele><time>2026-04-01T14:13:52Z</time></trkpt><trkpt lat="43.11520902952857" lon="0.8916082252345199"><ele>313.66666666666663</ele><time>2026-04-01T14:13:53Z</time></trkpt><trkpt lat="43.11530439949615" lon="0.8918749894814236"><ele>313.0</ele><time>2026-04-01T14:13:54Z</time></trkpt><trkpt lat="43.11540854551884" lon="0.8921615871961707"><ele>312.5</ele><time>2026-04-01T14:13:55Z</time></trkpt><trkpt lat="43.11550810070332" lon="0.8924497232477333"><ele>312.0</ele><time>2026-04-01T14:13:56Z</time></trkpt><trkpt lat="43.115607682116945" lon="0.8927399254151025"><ele>312.0</ele><time>2026-04-01T14:13:57Z</time></trkpt><trkpt lat="43.115709413758545" lon="0.8930353777724828"><ele>312.0</ele><time>2026-04-01T14:13:58Z</time></trkpt><trkpt lat="43.11581190065375" lon="0.8933332835547146"><ele>311.0</ele><time>2026-04-01T14:13:59Z</time></trkpt><trkpt lat="43.11591486580747" lon="0.8936287536837036"><ele>310.0</ele><time>2026-04-01T14:14:00Z</time></trkpt><trkpt lat="43.11601615702303" lon="0.893928133961268"><ele>310.0</ele><time>2026-04-01T14:14:01Z</time></trkpt><trkpt lat="43.11611453397395" lon="0.8942282320637941"><ele>310.0</ele><time>2026-04-01T14:14:02Z</time></trkpt><trkpt lat="43.116215853182595" lon="0.8945284101013622"><ele>310.0</ele><time>2026-04-01T14:14:03Z</time></trkpt><trkpt lat="43.11631740356604" lon="0.8948276910853685"><ele>310.0</ele><time>2026-04-01T14:14:04Z</time></trkpt><trkpt lat="43.11641915559986" lon="0.895126499718708"><ele>310.0</ele><time>2026-04-01T14:14:05Z</time></trkpt><trkpt lat="43.11652123779852" lon="0.8954219812543778"><ele>310.0</ele><time>2026-04-01T14:14:06Z</time></trkpt><trkpt lat="43.11662375997403" lon="0.8957184118782606"><ele>309.0</ele><time>2026-04-01T14:14:07Z</time></trkpt><trkpt lat="43.11672492769496" lon="0.8960126035596055"><ele>308.0</ele><time>2026-04-01T14:14:08Z</time></trkpt><trkpt lat="43.116825340034815" lon="0.896307281495997"><ele>308.0</ele><time>2026-04-01T14:14:09Z</time></trkpt><trkpt lat="43.11692387125494" lon="0.8966021296582753"><ele>308.0</ele><time>2026-04-01T14:14:10Z</time></trkpt><trkpt lat="43.11702299080843" lon="0.8968950524285998"><ele>308.5</ele><time>2026-04-01T14:14:11Z</time></trkpt><trkpt lat="43.117125530092984" lon="0.89718818370978"><ele>309.0</ele><time>2026-04-01T14:14:12Z</time></trkpt><trkpt lat="43.117228637473744" lon="0.8974815503419227"><ele>308.5</ele><time>2026-04-01T14:14:13Z</time></trkpt><trkpt lat="43.117328557502596" lon="0.8977769248011818"><ele>308.0</ele><time>2026-04-01T14:14:14Z</time></trkpt><trkpt lat="43.11743033201305" lon="0.898072615430981"><ele>308.0</ele><time>2026-04-01T14:14:15Z</time></trkpt><trkpt lat="43.117536747387426" lon="0.8983639091697907"><ele>308.0</ele><time>2026-04-01T14:14:16Z</time></trkpt><trkpt lat="43.11764359269756" lon="0.8986540733942906"><ele>308.0</ele><time>2026-04-01T14:14:17Z</time></trkpt><trkpt lat="43.117749352227975" lon="0.8989449842914502"><ele>308.0</ele><time>2026-04-01T14:14:18Z</time></trkpt><trkpt lat="43.11785686115952" lon="0.899233327737889"><ele>308.0</ele><time>2026-04-01T14:14:19Z</time></trkpt><trkpt lat="43.11796561194963" lon="0.8995192402183366"><ele>308.0</ele><time>2026-04-01T14:14:20Z</time></trkpt><trkpt lat="43.1180712390802" lon="0.8998058010816482"><ele>308.5</ele><time>2026-04-01T14:14:21Z</time></trkpt><trkpt lat="43.11817480563411" lon="0.900093448943815"><ele>309.0</ele><time>2026-04-01T14:14:22Z</time></trkpt><trkpt lat="43.118278973682216" lon="0.900378974882851"><ele>309.0</ele><time>2026-04-01T14:14:23Z</time></trkpt><trkpt lat="43.11838258556182" lon="0.9006606249632476"><ele>309.0</ele><time>2026-04-01T14:14:24Z</time></trkpt><trkpt lat="43.11848636114414" lon="0.9009395047757167"><ele>309.0</ele><time>2026-04-01T14:14:25Z</time></trkpt><trkpt lat="43.11858936532693" lon="0.9012180841131842"><ele>309.0</ele><time>2026-04-01T14:14:26Z</time></trkpt><trkpt lat="43.118689359739626" lon="0.9014922537857754"><ele>307.6666666666667</ele><time>2026-04-01T14:14:27Z</time></trkpt><trkpt lat="43.11878242587256" lon="0.9017657346622626"><ele>306.33333333333337</ele><time>2026-04-01T14:14:28Z</time></trkpt><trkpt lat="43.11886539764334" lon="0.9020395133011768"><ele>305.0</ele><time>2026-04-01T14:14:29Z</time></trkpt><trkpt lat="43.11894541316563" lon="0.9023255596868746"><ele>304.5</ele><time>2026-04-01T14:14:30Z</time></trkpt><trkpt lat="43.11902572116034" lon="0.9026254684141122"><ele>304.0</ele><time>2026-04-01T14:14:31Z</time></trkpt><trkpt lat="43.11910550236184" lon="0.9029385769366098"><ele>304.0</ele><time>2026-04-01T14:14:32Z</time></trkpt><trkpt lat="43.119182401586436" lon="0.903258678288422"><ele>304.0</ele><time>2026-04-01T14:14:33Z</time></trkpt><trkpt lat="43.11925590980867" lon="0.9035814478150063"><ele>303.5</ele><time>2026-04-01T14:14:34Z</time></trkpt><trkpt lat="43.11932445277846" lon="0.9039057226134662"><ele>303.0</ele><time>2026-04-01T14:14:35Z</time></trkpt><trkpt lat="43.11939075611845" lon="0.9042287814319095"><ele>303.0</ele><time>2026-04-01T14:14:36Z</time></trkpt><trkpt lat="43.11945722050091" lon="0.9045500399286135"><ele>303.0</ele><time>2026-04-01T14:14:37Z</time></trkpt><trkpt lat="43.119528271815994" lon="0.9048670986965504"><ele>303.5</ele><time>2026-04-01T14:14:38Z</time></trkpt><trkpt lat="43.119605934033835" lon="0.9051787774815844"><ele>304.0</ele><time>2026-04-01T14:14:39Z</time></trkpt><trkpt lat="43.11968969564953" lon="0.905485832125557"><ele>304.0</ele><time>2026-04-01T14:14:40Z</time></trkpt><trkpt lat="43.11977999551532" lon="0.905791263265834"><ele>304.0</ele><time>2026-04-01T14:14:41Z</time></trkpt><trkpt lat="43.119879413929844" lon="0.9060912697950851"><ele>304.0</ele><time>2026-04-01T14:14:42Z</time></trkpt><trkpt lat="43.11998048548688" lon="0.9063837420275173"><ele>304.0</ele><time>2026-04-01T14:14:43Z</time></trkpt><trkpt lat="43.12008137012134" lon="0.9066812002425292"><ele>303.5</ele><time>2026-04-01T14:14:44Z</time></trkpt><trkpt lat="43.12018053379454" lon="0.9069752140490338"><ele>303.0</ele><time>2026-04-01T14:14:45Z</time></trkpt><trkpt lat="43.12028011844713" lon="0.907264591544323"><ele>303.0</ele><time>2026-04-01T14:14:46Z</time></trkpt><trkpt lat="43.120374371817704" lon="0.9075364108515781"><ele>303.0</ele><time>2026-04-01T14:14:47Z</time></trkpt><trkpt lat="43.120462746262014" lon="0.9077953987615015"><ele>303.0</ele><time>2026-04-01T14:14:48Z</time></trkpt><trkpt lat="43.120544839522154" lon="0.9080445613594403"><ele>303.0</ele><time>2026-04-01T14:14:49Z</time></trkpt><trkpt lat="43.120619666574235" lon="0.9082824217967371"><ele>303.0</ele><time>2026-04-01T14:14:50Z</time></trkpt><trkpt lat="43.12069926210285" lon="0.908524924795133"><ele>303.0</ele><time>2026-04-01T14:14:51Z</time></trkpt><trkpt lat="43.120787737458556" lon="0.908768914311343"><ele>303.3333333333333</ele><time>2026-04-01T14:14:52Z</time></trkpt><trkpt lat="43.120875618814644" lon="0.9090150732705503"><ele>303.66666666666663</ele><time>2026-04-01T14:14:53Z</time></trkpt><trkpt lat="43.12095397145638" lon="0.9092441689922512"><ele>304.0</ele><time>2026-04-01T14:14:54Z</time></trkpt><trkpt lat="43.121030301450645" lon="0.9094637935641815"><ele>304.0</ele><time>2026-04-01T14:14:55Z</time></trkpt><trkpt lat="43.12110110284324" lon="0.9096730743722167"><ele>304.0</ele><time>2026-04-01T14:14:56Z</time></trkpt><trkpt lat="43.12116874135775" lon="0.9098714425846313"><ele>304.0</ele><time>2026-04-01T14:14:57Z</time></trkpt><trkpt lat="43.12123429086178" lon="0.9100582056677441"><ele>303.75</ele><time>2026-04-01T14:14:58Z</time></trkpt><trkpt lat="43.121297213830545" lon="0.9102354698881809"><ele>303.5</ele><time>2026-04-01T14:14:59Z</time></trkpt><trkpt lat="43.12135988538037" lon="0.9104004103259636"><ele>303.25</ele><time>2026-04-01T14:15:00Z</time></trkpt><trkpt lat="43.121414824687065" lon="0.9105621518148227"><ele>303.0</ele><time>2026-04-01T14:15:01Z</time></trkpt><trkpt lat="43.12146664019091" lon="0.9107187847038278"><ele>303.0</ele><time>2026-04-01T14:15:02Z</time></trkpt><trkpt lat="43.12151028035012" lon="0.910857328044408"><ele>303.0</ele><time>2026-04-01T14:15:03Z</time></trkpt><trkpt lat="43.121552863613836" lon="0.910989568810775"><ele>303.0</ele><time>2026-04-01T14:15:04Z</time></trkpt><trkpt lat="43.12159820801378" lon="0.9111144092547873"><ele>303.0</ele><time>2026-04-01T14:15:05Z</time></trkpt><trkpt lat="43.12164363642728" lon="0.9112346773919635"><ele>303.0</ele><time>2026-04-01T14:15:06Z</time></trkpt><trkpt lat="43.121677869927574" lon="0.9113520680835338"><ele>303.0</ele><time>2026-04-01T14:15:07Z</time></trkpt><trkpt lat="43.12168234251459" lon="0.9114758249962426"><ele>303.0</ele><time>2026-04-01T14:15:08Z</time></trkpt><trkpt lat="43.121686595969784" lon="0.9115889022769986"><ele>303.0</ele><time>2026-04-01T14:15:09Z</time></trkpt><trkpt lat="43.121688112674" lon="0.9117034350326372"><ele>303.0</ele><time>2026-04-01T14:15:10Z</time></trkpt><trkpt lat="43.12168550352528" lon="0.911808105791549"><ele>303.0</ele><time>2026-04-01T14:15:11Z</time></trkpt><trkpt lat="43.121682405036935" lon="0.9119065742172064"><ele>303.0</ele><time>2026-04-01T14:15:12Z</time></trkpt><trkpt lat="43.121679438300454" lon="0.9120115659101088"><ele>303.0</ele><time>2026-04-01T14:15:13Z</time></trkpt><trkpt lat="43.121683509517766" lon="0.9121080687493944"><ele>303.0</ele><time>2026-04-01T14:15:14Z</time></trkpt><trkpt lat="43.12165828653064" lon="0.9122670386259035"><ele>303.0</ele><time>2026-04-01T14:15:16Z</time></trkpt><trkpt lat="43.12167005294004" lon="0.9124491029265339"><ele>303.0</ele><time>2026-04-01T14:15:18Z</time></trkpt><trkpt lat="43.12167374687208" lon="0.9125501948855228"><ele>303.0</ele><time>2026-04-01T14:15:19Z</time></trkpt><trkpt lat="43.121684223934174" lon="0.9126639807854735"><ele>303.2</ele><time>2026-04-01T14:15:20Z</time></trkpt><trkpt lat="43.12169429957972" lon="0.9127830963380326"><ele>303.4</ele><time>2026-04-01T14:15:21Z</time></trkpt><trkpt lat="43.12170634699321" lon="0.9129110732841409"><ele>303.59999999999997</ele><time>2026-04-01T14:15:22Z</time></trkpt><trkpt lat="43.121717077567475" lon="0.9130447642035656"><ele>303.8</ele><time>2026-04-01T14:15:23Z</time></trkpt><trkpt lat="43.12173185255495" lon="0.9131733849061746"><ele>304.0</ele><time>2026-04-01T14:15:24Z</time></trkpt><trkpt lat="43.12175551619853" lon="0.9132979998231707"><ele>303.59999999999997</ele><time>2026-04-01T14:15:25Z</time></trkpt><trkpt lat="43.12179570304606" lon="0.9134176906045629"><ele>303.2</ele><time>2026-04-01T14:15:26Z</time></trkpt><trkpt lat="43.12184578913903" lon="0.9135310218306085"><ele>302.79999999999995</ele><time>2026-04-01T14:15:27Z</time></trkpt><trkpt lat="43.12189897673832" lon="0.9136468624499532"><ele>302.4</ele><time>2026-04-01T14:15:28Z</time></trkpt><trkpt lat="43.12195947145917" lon="0.9137589821890856"><ele>302.0</ele><time>2026-04-01T14:15:29Z</time></trkpt><trkpt lat="43.12201183071606" lon="0.9138687549800932"><ele>302.0</ele><time>2026-04-01T14:15:30Z</time></trkpt><trkpt lat="43.12206170283436" lon="0.913973704668118"><ele>302.0</ele><time>2026-04-01T14:15:31Z</time></trkpt><trkpt lat="43.12210828084638" lon="0.9140740726999653"><ele>302.0</ele><time>2026-04-01T14:15:32Z</time></trkpt><trkpt lat="43.12215204314869" lon="0.9141692383764417"><ele>302.0</ele><time>2026-04-01T14:15:33Z</time></trkpt><trkpt lat="43.122183191043845" lon="0.9142727641419908"><ele>302.0</ele><time>2026-04-01T14:15:34Z</time></trkpt><trkpt lat="43.12222909978447" lon="0.9143622973226234"><ele>302.0</ele><time>2026-04-01T14:15:35Z</time></trkpt><trkpt lat="43.12227460766794" lon="0.9144425810619058"><ele>301.6</ele><time>2026-04-01T14:15:36Z</time></trkpt><trkpt lat="43.12233998421192" lon="0.9145085377160151"><ele>301.2</ele><time>2026-04-01T14:15:37Z</time></trkpt><trkpt lat="43.122410156527565" lon="0.9146055776982843"><ele>300.8</ele><time>2026-04-01T14:15:38Z</time></trkpt><trkpt lat="43.12250192142016" lon="0.9147232848618464"><ele>300.4</ele><time>2026-04-01T14:15:39Z</time></trkpt><trkpt lat="43.12260549679131" lon="0.9148381891257903"><ele>300.0</ele><time>2026-04-01T14:15:40Z</time></trkpt><trkpt lat="43.12271933708481" lon="0.914949787110198"><ele>299.3333333333333</ele><time>2026-04-01T14:15:41Z</time></trkpt><trkpt lat="43.12284548928981" lon="0.9150735534316162"><ele>298.66666666666663</ele><time>2026-04-01T14:15:42Z</time></trkpt><trkpt lat="43.12297675122325" lon="0.915197524717529"><ele>298.0</ele><time>2026-04-01T14:15:43Z</time></trkpt><trkpt lat="43.12311096160084" lon="0.9153124739245666"><ele>298.3333333333333</ele><time>2026-04-01T14:15:44Z</time></trkpt><trkpt lat="43.12324846867252" lon="0.9154311228902144"><ele>298.6666666666667</ele><time>2026-04-01T14:15:45Z</time></trkpt><trkpt lat="43.12338755955178" lon="0.9155488128591968"><ele>299.0</ele><time>2026-04-01T14:15:46Z</time></trkpt><trkpt lat="43.12353643182593" lon="0.9156564891512453"><ele>299.0</ele><time>2026-04-01T14:15:47Z</time></trkpt><trkpt lat="43.12369577111896" lon="0.915745028914181"><ele>299.0</ele><time>2026-04-01T14:15:48Z</time></trkpt><trkpt lat="43.12387012760089" lon="0.9158168072200136"><ele>299.0</ele><time>2026-04-01T14:15:49Z</time></trkpt><trkpt lat="43.1240473295345" lon="0.9158869811580292"><ele>298.6666666666667</ele><time>2026-04-01T14:15:50Z</time></trkpt><trkpt lat="43.124228810136685" lon="0.9159644358678135"><ele>298.3333333333333</ele><time>2026-04-01T14:15:51Z</time></trkpt><trkpt lat="43.12441055004281" lon="0.9160445751615125"><ele>298.0</ele><time>2026-04-01T14:15:52Z</time></trkpt><trkpt lat="43.12459487170223" lon="0.9161235227032672"><ele>298.0</ele><time>2026-04-01T14:15:53Z</time></trkpt><trkpt lat="43.124778442159545" lon="0.9162082025250751"><ele>298.0</ele><time>2026-04-01T14:15:54Z</time></trkpt><trkpt lat="43.124968708655395" lon="0.9162915150959153"><ele>298.0</ele><time>2026-04-01T14:15:55Z</time></trkpt><trkpt lat="43.125159010732226" lon="0.9163679232930073"><ele>298.66666666666663</ele><time>2026-04-01T14:15:56Z</time></trkpt><trkpt lat="43.12535188992812" lon="0.9164455805837262"><ele>299.3333333333333</ele><time>2026-04-01T14:15:57Z</time></trkpt><trkpt lat="43.12554330185678" lon="0.9165351155220547"><ele>300.0</ele><time>2026-04-01T14:15:58Z</time></trkpt><trkpt lat="43.12573216100635" lon="0.9166238709745205"><ele>300.0</ele><time>2026-04-01T14:15:59Z</time></trkpt><trkpt lat="43.12592384259314" lon="0.9167082032338136"><ele>300.0</ele><time>2026-04-01T14:16:00Z</time></trkpt><trkpt lat="43.126115845566574" lon="0.9167935957859777"><ele>300.0</ele><time>2026-04-01T14:16:01Z</time></trkpt><trkpt lat="43.12630513802977" lon="0.916879924179259"><ele>298.6666666666667</ele><time>2026-04-01T14:16:02Z</time></trkpt><trkpt lat="43.12649778162831" lon="0.9169623773494641"><ele>297.33333333333337</ele><time>2026-04-01T14:16:03Z</time></trkpt><trkpt lat="43.126691992714704" lon="0.9170403299975266"><ele>296.0</ele><time>2026-04-01T14:16:04Z</time></trkpt><trkpt lat="43.12688996810652" lon="0.9171242742349301"><ele>296.0</ele><time>2026-04-01T14:16:05Z</time></trkpt><trkpt lat="43.12708574664616" lon="0.9172154795660112"><ele>296.0</ele><time>2026-04-01T14:16:06Z</time></trkpt><trkpt lat="43.12728374986643" lon="0.9173051144562041"><ele>296.0</ele><time>2026-04-01T14:16:07Z</time></trkpt><trkpt lat="43.12748363735189" lon="0.9173853056914607"><ele>295.6666666666667</ele><time>2026-04-01T14:16:08Z</time></trkpt><trkpt lat="43.12768440535488" lon="0.9174662971648458"><ele>295.3333333333333</ele><time>2026-04-01T14:16:09Z</time></trkpt><trkpt lat="43.12788095340901" lon="0.9175506840398231"><ele>295.0</ele><time>2026-04-01T14:16:10Z</time></trkpt><trkpt lat="43.128080618820654" lon="0.91763636404377"><ele>295.66666666666663</ele><time>2026-04-01T14:16:11Z</time></trkpt><trkpt lat="43.12827845778441" lon="0.9177273143064705"><ele>296.3333333333333</ele><time>2026-04-01T14:16:12Z</time></trkpt><trkpt lat="43.12847579796181" lon="0.9178186079991116"><ele>297.0</ele><time>2026-04-01T14:16:13Z</time></trkpt><trkpt lat="43.1286739964514" lon="0.9179076701693647"><ele>297.0</ele><time>2026-04-01T14:16:14Z</time></trkpt><trkpt lat="43.12887411901406" lon="0.9179953347459605"><ele>297.0</ele><time>2026-04-01T14:16:15Z</time></trkpt><trkpt lat="43.12907506779184" lon="0.9180814059471905"><ele>297.0</ele><time>2026-04-01T14:16:16Z</time></trkpt><trkpt lat="43.129271161116186" lon="0.9181682932531163"><ele>296.3333333333333</ele><time>2026-04-01T14:16:17Z</time></trkpt><trkpt lat="43.129465240985745" lon="0.9182565295312077"><ele>295.66666666666663</ele><time>2026-04-01T14:16:18Z</time></trkpt><trkpt lat="43.129660480973705" lon="0.9183410188403007"><ele>295.0</ele><time>2026-04-01T14:16:19Z</time></trkpt><trkpt lat="43.12985633158334" lon="0.9184275405524277"><ele>295.66666666666663</ele><time>2026-04-01T14:16:20Z</time></trkpt><trkpt lat="43.13005420677122" lon="0.9185126722994807"><ele>296.3333333333333</ele><time>2026-04-01T14:16:21Z</time></trkpt><trkpt lat="43.1302490217728" lon="0.918592973266814"><ele>297.0</ele><time>2026-04-01T14:16:22Z</time></trkpt><trkpt lat="43.130448601182955" lon="0.9186628681582948"><ele>297.0</ele><time>2026-04-01T14:16:23Z</time></trkpt><trkpt lat="43.1306483264925" lon="0.9187209970174163"><ele>297.0</ele><time>2026-04-01T14:16:24Z</time></trkpt><trkpt lat="43.13085840053805" lon="0.9187636813213638"><ele>297.0</ele><time>2026-04-01T14:16:25Z</time></trkpt><trkpt lat="43.13107738154412" lon="0.9187936567495252"><ele>297.5</ele><time>2026-04-01T14:16:26Z</time></trkpt><trkpt lat="43.13130657677127" lon="0.9188134268854785"><ele>298.0</ele><time>2026-04-01T14:16:27Z</time></trkpt><trkpt lat="43.13154388110752" lon="0.9188357046461468"><ele>297.5</ele><time>2026-04-01T14:16:28Z</time></trkpt><trkpt lat="43.131781551436475" lon="0.9188598932458188"><ele>297.0</ele><time>2026-04-01T14:16:29Z</time></trkpt><trkpt lat="43.13202138903579" lon="0.9188807250409363"><ele>297.0</ele><time>2026-04-01T14:16:30Z</time></trkpt><trkpt lat="43.13226517764674" lon="0.9189056884459873"><ele>297.0</ele><time>2026-04-01T14:16:31Z</time></trkpt><trkpt lat="43.132512365034124" lon="0.9189310519675693"><ele>297.0</ele><time>2026-04-01T14:16:32Z</time></trkpt><trkpt lat="43.13276021553125" lon="0.9189542865331589"><ele>297.0</ele><time>2026-04-01T14:16:33Z</time></trkpt><trkpt lat="43.13301764431269" lon="0.9189835392922913"><ele>297.5</ele><time>2026-04-01T14:16:34Z</time></trkpt><trkpt lat="43.13325604229625" lon="0.9190107816963816"><ele>298.0</ele><time>2026-04-01T14:16:35Z</time></trkpt><trkpt lat="43.13348900136047" lon="0.9190344217589467"><ele>298.0</ele><time>2026-04-01T14:16:36Z</time></trkpt><trkpt lat="43.13371473191592" lon="0.9190571796744859"><ele>298.0</ele><time>2026-04-01T14:16:37Z</time></trkpt><trkpt lat="43.13393220043233" lon="0.9190802228373643"><ele>298.0</ele><time>2026-04-01T14:16:38Z</time></trkpt><trkpt lat="43.13415703893172" lon="0.9191038635601569"><ele>297.5</ele><time>2026-04-01T14:16:39Z</time></trkpt><trkpt lat="43.13438318605865" lon="0.9191298677870028"><ele>297.0</ele><time>2026-04-01T14:16:40Z</time></trkpt><trkpt lat="43.13461211303203" lon="0.9191556070006068"><ele>297.0</ele><time>2026-04-01T14:16:41Z</time></trkpt><trkpt lat="43.134843538665045" lon="0.9191803773220212"><ele>297.0</ele><time>2026-04-01T14:16:42Z</time></trkpt><trkpt lat="43.135074651783555" lon="0.9192051561975868"><ele>297.5</ele><time>2026-04-01T14:16:43Z</time></trkpt><trkpt lat="43.13530768326658" lon="0.9192338003227697"><ele>298.0</ele><time>2026-04-01T14:16:44Z</time></trkpt><trkpt lat="43.13553780610621" lon="0.9192620000384294"><ele>295.5</ele><time>2026-04-01T14:16:45Z</time></trkpt><trkpt lat="43.13576585265793" lon="0.9192876941964179"><ele>293.0</ele><time>2026-04-01T14:16:46Z</time></trkpt><trkpt lat="43.13599115266149" lon="0.9193138656960239"><ele>293.0</ele><time>2026-04-01T14:16:47Z</time></trkpt><trkpt lat="43.136219347805934" lon="0.9193446984931269"><ele>293.0</ele><time>2026-04-01T14:16:48Z</time></trkpt><trkpt lat="43.13644143952645" lon="0.9193734329202019"><ele>292.33333333333337</ele><time>2026-04-01T14:16:49Z</time></trkpt><trkpt lat="43.136660978273" lon="0.9193977080702799"><ele>291.6666666666667</ele><time>2026-04-01T14:16:50Z</time></trkpt><trkpt lat="43.13687607462437" lon="0.919406760669593"><ele>291.0</ele><time>2026-04-01T14:16:51Z</time></trkpt><trkpt lat="43.13709398913785" lon="0.9194022046951099"><ele>291.0</ele><time>2026-04-01T14:16:52Z</time></trkpt><trkpt lat="43.13730895498696" lon="0.9194062204431246"><ele>291.0</ele><time>2026-04-01T14:16:53Z</time></trkpt><trkpt lat="43.137522325853475" lon="0.9194491212924941"><ele>291.0</ele><time>2026-04-01T14:16:54Z</time></trkpt><trkpt lat="43.137727430295215" lon="0.9195363288514401"><ele>290.3333333333333</ele><time>2026-04-01T14:16:55Z</time></trkpt><trkpt lat="43.1379316814406" lon="0.9196471487531914"><ele>289.66666666666663</ele><time>2026-04-01T14:16:56Z</time></trkpt><trkpt lat="43.13812908226632" lon="0.9197701453917261"><ele>289.0</ele><time>2026-04-01T14:16:57Z</time></trkpt><trkpt lat="43.13832736760205" lon="0.9198770203717915"><ele>292.3333333333333</ele><time>2026-04-01T14:16:58Z</time></trkpt><trkpt lat="43.13853534817474" lon="0.9199402988993257"><ele>295.6666666666667</ele><time>2026-04-01T14:16:59Z</time></trkpt><trkpt lat="43.13874897138926" lon="0.919972832876105"><ele>299.0</ele><time>2026-04-01T14:17:00Z</time></trkpt><trkpt lat="43.13896469043646" lon="0.9199966860752835"><ele>300.0</ele><time>2026-04-01T14:17:01Z</time></trkpt><trkpt lat="43.1391791446608" lon="0.9200280849813693"><ele>301.0</ele><time>2026-04-01T14:17:02Z</time></trkpt><trkpt lat="43.13938798261307" lon="0.9200428134632289"><ele>302.0</ele><time>2026-04-01T14:17:03Z</time></trkpt><trkpt lat="43.13958253217745" lon="0.9200346414521439"><ele>302.0</ele><time>2026-04-01T14:17:04Z</time></trkpt><trkpt lat="43.13976567377659" lon="0.9200299439873845"><ele>302.0</ele><time>2026-04-01T14:17:05Z</time></trkpt><trkpt lat="43.139942476350896" lon="0.9200472579152338"><ele>302.0</ele><time>2026-04-01T14:17:06Z</time></trkpt><trkpt lat="43.140108740084415" lon="0.9201022926968381"><ele>297.33333333333337</ele><time>2026-04-01T14:17:07Z</time></trkpt><trkpt lat="43.14027076554123" lon="0.9202008662012189"><ele>292.6666666666667</ele><time>2026-04-01T14:17:08Z</time></trkpt><trkpt lat="43.14041819823464" lon="0.9203404590036538"><ele>288.0</ele><time>2026-04-01T14:17:09Z</time></trkpt><trkpt lat="43.14053873541713" lon="0.9205155305546915"><ele>288.0</ele><time>2026-04-01T14:17:10Z</time></trkpt><trkpt lat="43.140661678638004" lon="0.9207190977840988"><ele>288.0</ele><time>2026-04-01T14:17:11Z</time></trkpt><trkpt lat="43.140783348516635" lon="0.9209067633674929"><ele>288.0</ele><time>2026-04-01T14:17:12Z</time></trkpt><trkpt lat="43.14089556416267" lon="0.9210738504400798"><ele>292.6666666666667</ele><time>2026-04-01T14:17:13Z</time></trkpt><trkpt lat="43.140986411124125" lon="0.9212604154176701"><ele>297.33333333333337</ele><time>2026-04-01T14:17:14Z</time></trkpt><trkpt lat="43.141055228894864" lon="0.921482168064292"><ele>302.0</ele><time>2026-04-01T14:17:15Z</time></trkpt><trkpt lat="43.14109855189185" lon="0.9217270785509821"><ele>299.0</ele><time>2026-04-01T14:17:16Z</time></trkpt><trkpt lat="43.14112526461506" lon="0.9219916455400858"><ele>296.0</ele><time>2026-04-01T14:17:17Z</time></trkpt><trkpt lat="43.14116416569284" lon="0.9222592052788078"><ele>293.0</ele><time>2026-04-01T14:17:18Z</time></trkpt><trkpt lat="43.141228043019254" lon="0.922525721697613"><ele>291.6666666666667</ele><time>2026-04-01T14:17:19Z</time></trkpt><trkpt lat="43.14128583907628" lon="0.9227949057525401"><ele>290.3333333333333</ele><time>2026-04-01T14:17:20Z</time></trkpt><trkpt lat="43.14129958291209" lon="0.9230693586435346"><ele>289.0</ele><time>2026-04-01T14:17:21Z</time></trkpt><trkpt lat="43.14129600138758" lon="0.9233366563777426"><ele>287.3333333333333</ele><time>2026-04-01T14:17:22Z</time></trkpt><trkpt lat="43.141290978036814" lon="0.9235848563244576"><ele>285.6666666666667</ele><time>2026-04-01T14:17:23Z</time></trkpt><trkpt lat="43.141293228323995" lon="0.9238217271739169"><ele>284.0</ele><time>2026-04-01T14:17:24Z</time></trkpt><trkpt lat="43.141302010327074" lon="0.9240406068284173"><ele>283.75</ele><time>2026-04-01T14:17:25Z</time></trkpt><trkpt lat="43.141319490813615" lon="0.9242478653667207"><ele>283.5</ele><time>2026-04-01T14:17:26Z</time></trkpt><trkpt lat="43.14134117714517" lon="0.9244422432506031"><ele>283.25</ele><time>2026-04-01T14:17:27Z</time></trkpt><trkpt lat="43.14136600525715" lon="0.9246299985218718"><ele>283.0</ele><time>2026-04-01T14:17:28Z</time></trkpt><trkpt lat="43.14140274473248" lon="0.9248145367067273"><ele>283.0</ele><time>2026-04-01T14:17:29Z</time></trkpt><trkpt lat="43.141441219952355" lon="0.9250085585612995"><ele>283.0</ele><time>2026-04-01T14:17:30Z</time></trkpt><trkpt lat="43.141478062338386" lon="0.9252323689832309"><ele>283.0</ele><time>2026-04-01T14:17:31Z</time></trkpt><trkpt lat="43.14151460296326" lon="0.9254387789790719"><ele>284.75</ele><time>2026-04-01T14:17:32Z</time></trkpt><trkpt lat="43.14155255174531" lon="0.9256364594666281"><ele>286.5</ele><time>2026-04-01T14:17:33Z</time></trkpt><trkpt lat="43.14158798129224" lon="0.9258254693179174"><ele>288.25</ele><time>2026-04-01T14:17:34Z</time></trkpt><trkpt lat="43.141623121441825" lon="0.9260124688157603"><ele>290.0</ele><time>2026-04-01T14:17:35Z</time></trkpt><trkpt lat="43.141661467535165" lon="0.9261875198610959"><ele>290.0</ele><time>2026-04-01T14:17:36Z</time></trkpt><trkpt lat="43.14170155881399" lon="0.9263524316891074"><ele>290.0</ele><time>2026-04-01T14:17:37Z</time></trkpt><trkpt lat="43.14173325291951" lon="0.9265140945645739"><ele>290.0</ele><time>2026-04-01T14:17:38Z</time></trkpt><trkpt lat="43.141763578515295" lon="0.9266655009449851"><ele>290.0</ele><time>2026-04-01T14:17:39Z</time></trkpt><trkpt lat="43.14179397457531" lon="0.9268100104804905"><ele>289.8</ele><time>2026-04-01T14:17:40Z</time></trkpt><trkpt lat="43.14182335737595" lon="0.9269527386489104"><ele>289.6</ele><time>2026-04-01T14:17:41Z</time></trkpt><trkpt lat="43.14185063095352" lon="0.9270905821608333"><ele>289.4</ele><time>2026-04-01T14:17:42Z</time></trkpt><trkpt lat="43.14187362119104" lon="0.9272224934828723"><ele>289.2</ele><time>2026-04-01T14:17:43Z</time></trkpt><trkpt lat="43.14189668852612" lon="0.9273499301281889"><ele>289.0</ele><time>2026-04-01T14:17:44Z</time></trkpt><trkpt lat="43.141922416619394" lon="0.927472314502766"><ele>288.8333333333333</ele><time>2026-04-01T14:17:45Z</time></trkpt><trkpt lat="43.14194623808966" lon="0.9275917082533227"><ele>288.66666666666663</ele><time>2026-04-01T14:17:46Z</time></trkpt><trkpt lat="43.14196727313786" lon="0.9277062335279233"><ele>288.5</ele><time>2026-04-01T14:17:47Z</time></trkpt><trkpt lat="43.14198932692976" lon="0.9278180002463111"><ele>288.3333333333333</ele><time>2026-04-01T14:17:48Z</time></trkpt><trkpt lat="43.142010191072224" lon="0.9279264121480384"><ele>288.1666666666667</ele><time>2026-04-01T14:17:49Z</time></trkpt><trkpt lat="43.1420268169208" lon="0.9280290368599218"><ele>288.0</ele><time>2026-04-01T14:17:50Z</time></trkpt><trkpt lat="43.14204690127421" lon="0.9281322099887942"><ele>288.0</ele><time>2026-04-01T14:17:51Z</time></trkpt><trkpt lat="43.14206329506438" lon="0.9282323666248706"><ele>288.0</ele><time>2026-04-01T14:17:52Z</time></trkpt><trkpt lat="43.1421036983895" lon="0.9283961505077252"><ele>288.0</ele><time>2026-04-01T14:17:54Z</time></trkpt><trkpt lat="43.14212461461905" lon="0.9284859399449029"><ele>288.0</ele><time>2026-04-01T14:17:55Z</time></trkpt><trkpt lat="43.14214484840463" lon="0.928644077276986"><ele>288.0</ele><time>2026-04-01T14:17:57Z</time></trkpt><trkpt lat="43.14216494121825" lon="0.9287850216246926"><ele>288.0</ele><time>2026-04-01T14:17:59Z</time></trkpt><trkpt lat="43.14219825239395" lon="0.9288653985061767"><ele>288.0</ele><time>2026-04-01T14:18:01Z</time></trkpt><trkpt lat="43.14213261389067" lon="0.9289697583111594"><ele>288.0</ele><time>2026-04-01T14:18:13Z</time></trkpt><trkpt lat="43.14212966434441" lon="0.9291093615806854"><ele>288.0</ele><time>2026-04-01T14:18:15Z</time></trkpt><trkpt lat="43.142135090877694" lon="0.9292132077311943"><ele>288.0</ele><time>2026-04-01T14:18:16Z</time></trkpt><trkpt lat="43.1421311324366" lon="0.9293187093715015"><ele>288.0</ele><time>2026-04-01T14:18:18Z</time></trkpt><trkpt lat="43.14213958617586" lon="0.9294170257820831"><ele>288.0</ele><time>2026-04-01T14:18:21Z</time></trkpt><trkpt lat="43.142108598747505" lon="0.9295358497624729"><ele>288.0</ele><time>2026-04-01T14:18:35Z</time></trkpt><trkpt lat="43.1421058233994" lon="0.9296417540389555"><ele>288.0</ele><time>2026-04-01T14:18:36Z</time></trkpt><trkpt lat="43.142112041303676" lon="0.9297373535619925"><ele>288.0</ele><time>2026-04-01T14:18:37Z</time></trkpt><trkpt lat="43.142119766752494" lon="0.929840164465828"><ele>288.0</ele><time>2026-04-01T14:18:38Z</time></trkpt><trkpt lat="43.14212870106303" lon="0.9299258882000605"><ele>288.0</ele><time>2026-04-01T14:18:39Z</time></trkpt><trkpt lat="43.142143127165745" lon="0.9300643050622307"><ele>288.1666666666667</ele><time>2026-04-01T14:18:41Z</time></trkpt><trkpt lat="43.14215394636661" lon="0.9301681142591112"><ele>288.3333333333333</ele><time>2026-04-01T14:18:43Z</time></trkpt><trkpt lat="43.14220328930971" lon="0.9302722367679865"><ele>288.5</ele><time>2026-04-01T14:18:45Z</time></trkpt><trkpt lat="43.142217314750084" lon="0.9304173181030766"><ele>288.66666666666663</ele><time>2026-04-01T14:18:47Z</time></trkpt><trkpt lat="43.142224876610534" lon="0.9305366272172547"><ele>288.8333333333333</ele><time>2026-04-01T14:18:49Z</time></trkpt><trkpt lat="43.14225188716676" lon="0.9306431383478926"><ele>289.0</ele><time>2026-04-01T14:18:51Z</time></trkpt><trkpt lat="43.14228002572239" lon="0.9307508427758867"><ele>289.0</ele><time>2026-04-01T14:18:53Z</time></trkpt><trkpt lat="43.142320595016834" lon="0.9308339758154894"><ele>289.0</ele><time>2026-04-01T14:18:56Z</time></trkpt><trkpt lat="43.14236375620948" lon="0.9309699340262514"><ele>289.0</ele><time>2026-04-01T14:19:39Z</time></trkpt><trkpt lat="43.14238891973476" lon="0.9310523277578355"><ele>289.0</ele><time>2026-04-01T14:19:40Z</time></trkpt><trkpt lat="43.142414740789036" lon="0.9311385615139406"><ele>289.0</ele><time>2026-04-01T14:19:41Z</time></trkpt><trkpt lat="43.142471232400055" lon="0.931274586538643"><ele>289.0</ele><time>2026-04-01T14:19:43Z</time></trkpt><trkpt lat="43.14252002320709" lon="0.9313867464805404"><ele>287.2</ele><time>2026-04-01T14:19:45Z</time></trkpt><trkpt lat="43.142569620788684" lon="0.9315172273778273"><ele>285.4</ele><time>2026-04-01T14:19:47Z</time></trkpt><trkpt lat="43.14259734535544" lon="0.9316006131027046"><ele>283.6</ele><time>2026-04-01T14:19:48Z</time></trkpt><trkpt lat="43.142669940393475" lon="0.931753458400293"><ele>281.8</ele><time>2026-04-01T14:19:50Z</time></trkpt><trkpt lat="43.142728737353224" lon="0.9319004880386804"><ele>280.0</ele><time>2026-04-01T14:19:52Z</time></trkpt><trkpt lat="43.14278720760366" lon="0.9320490503865606"><ele>279.4</ele><time>2026-04-01T14:19:54Z</time></trkpt><trkpt lat="43.14286011766985" lon="0.9321736262075885"><ele>278.8</ele><time>2026-04-01T14:19:56Z</time></trkpt><trkpt lat="43.1429684834929" lon="0.9322329308702384"><ele>278.2</ele><time>2026-04-01T14:19:58Z</time></trkpt><trkpt lat="43.143083703183045" lon="0.9322694530816656"><ele>277.6</ele><time>2026-04-01T14:20:00Z</time></trkpt><trkpt lat="43.1431717176417" lon="0.9322904964674009"><ele>277.0</ele><time>2026-04-01T14:20:02Z</time></trkpt><trkpt lat="43.14324788008872" lon="0.9323395620342251"><ele>278.5</ele><time>2026-04-01T14:20:04Z</time></trkpt><trkpt lat="43.14333355386164" lon="0.932458185817776"><ele>280.0</ele><time>2026-04-01T14:20:06Z</time></trkpt><trkpt lat="43.14333199181228" lon="0.9325615281515418"><ele>281.5</ele><time>2026-04-01T14:20:07Z</time></trkpt><trkpt lat="43.14335615292282" lon="0.9326657240840747"><ele>283.0</ele><time>2026-04-01T14:20:08Z</time></trkpt><trkpt lat="43.14338151562375" lon="0.9327751019146595"><ele>284.5</ele><time>2026-04-01T14:20:09Z</time></trkpt><trkpt lat="43.14341832059828" lon="0.9328608282087767"><ele>286.0</ele><time>2026-04-01T14:20:10Z</time></trkpt><trkpt lat="43.1434260666551" lon="0.9329672303385048"><ele>286.0</ele><time>2026-04-01T14:20:12Z</time></trkpt><trkpt lat="43.14357006578695" lon="0.9329435908452254"><ele>286.0</ele><time>2026-04-01T14:20:15Z</time></trkpt><trkpt lat="43.14362807572834" lon="0.9328901442757909"><ele>286.0</ele><time>2026-04-01T14:20:17Z</time></trkpt><trkpt lat="43.14359056238793" lon="0.9328084730626837"><ele>286.0</ele><time>2026-04-01T14:20:18Z</time></trkpt><trkpt lat="43.14356526876259" lon="0.9326454610827927"><ele>286.0</ele><time>2026-04-01T14:20:20Z</time></trkpt><trkpt lat="43.1435504105343" lon="0.9325401696715362"><ele>286.66666666666663</ele><time>2026-04-01T14:20:21Z</time></trkpt><trkpt lat="43.143551025511066" lon="0.9324259218191097"><ele>287.3333333333333</ele><time>2026-04-01T14:20:22Z</time></trkpt><trkpt lat="43.14354080357254" lon="0.9323204899262713"><ele>288.0</ele><time>2026-04-01T14:20:23Z</time></trkpt><trkpt lat="43.1435297485941" lon="0.9322110740222705"><ele>288.6666666666667</ele><time>2026-04-01T14:20:24Z</time></trkpt><trkpt lat="43.14351024325537" lon="0.9321011656509245"><ele>289.33333333333337</ele><time>2026-04-01T14:20:25Z</time></trkpt><trkpt lat="43.14348746985633" lon="0.9319867942728663"><ele>290.0</ele><time>2026-04-01T14:20:26Z</time></trkpt><trkpt lat="43.14347661741711" lon="0.9318662700549604"><ele>290.0</ele><time>2026-04-01T14:20:27Z</time></trkpt><trkpt lat="43.143466473825995" lon="0.9317410624655866"><ele>290.0</ele><time>2026-04-01T14:20:28Z</time></trkpt><trkpt lat="43.14343171873704" lon="0.9316206636160783"><ele>290.0</ele><time>2026-04-01T14:20:29Z</time></trkpt><trkpt lat="43.14343074334951" lon="0.9314882285586538"><ele>290.0</ele><time>2026-04-01T14:20:30Z</time></trkpt><trkpt lat="43.143404024104385" lon="0.9313659274916748"><ele>290.0</ele><time>2026-04-01T14:20:31Z</time></trkpt><trkpt lat="43.143407417067856" lon="0.9312369867174971"><ele>290.0</ele><time>2026-04-01T14:20:32Z</time></trkpt><trkpt lat="43.143393162259855" lon="0.9311139701455673"><ele>290.0</ele><time>2026-04-01T14:20:33Z</time></trkpt><trkpt lat="43.14337794554278" lon="0.9310093502317257"><ele>290.0</ele><time>2026-04-01T14:20:34Z</time></trkpt><trkpt lat="43.143365700765685" lon="0.9309139737242976"><ele>290.0</ele><time>2026-04-01T14:20:35Z</time></trkpt><trkpt lat="43.143355230670835" lon="0.9308066149490333"><ele>290.0</ele><time>2026-04-01T14:20:36Z</time></trkpt><trkpt lat="43.14334801011351" lon="0.9306896867003822"><ele>290.0</ele><time>2026-04-01T14:20:37Z</time></trkpt><trkpt lat="43.1433291098715" lon="0.9305733838767335"><ele>290.83333333333337</ele><time>2026-04-01T14:20:38Z</time></trkpt><trkpt lat="43.14331100649181" lon="0.9304616242692292"><ele>291.6666666666667</ele><time>2026-04-01T14:20:39Z</time></trkpt><trkpt lat="43.14329979589782" lon="0.9303658243398893"><ele>292.5</ele><time>2026-04-01T14:20:40Z</time></trkpt><trkpt lat="43.14328647962372" lon="0.9302809304213486"><ele>293.3333333333333</ele><time>2026-04-01T14:20:41Z</time></trkpt><trkpt lat="43.143276364183095" lon="0.9301840876049977"><ele>294.16666666666663</ele><time>2026-04-01T14:20:43Z</time></trkpt><trkpt lat="43.14323775156731" lon="0.9300759606433209"><ele>295.0</ele><time>2026-04-01T14:20:45Z</time></trkpt><trkpt lat="43.143262059067254" lon="0.929966607848802"><ele>294.6</ele><time>2026-04-01T14:20:46Z</time></trkpt><trkpt lat="43.143263205172595" lon="0.9298557283019819"><ele>294.2</ele><time>2026-04-01T14:20:47Z</time></trkpt><trkpt lat="43.14326112922544" lon="0.929756459153752"><ele>293.8</ele><time>2026-04-01T14:20:48Z</time></trkpt><trkpt lat="43.143260223828456" lon="0.9296489109595019"><ele>293.4</ele><time>2026-04-01T14:20:49Z</time></trkpt><trkpt lat="43.14324436527524" lon="0.9295274181716854"><ele>293.0</ele><time>2026-04-01T14:20:51Z</time></trkpt><trkpt lat="43.14310929427543" lon="0.9296034184175963"><ele>293.0</ele><time>2026-04-01T14:20:55Z</time></trkpt><trkpt lat="43.14305530515517" lon="0.9296545322137113"><ele>293.0</ele><time>2026-04-01T14:20:56Z</time></trkpt><trkpt lat="43.142991147700194" lon="0.9296845165719163"><ele>293.0</ele><time>2026-04-01T14:20:57Z</time></trkpt><trkpt lat="43.14287254791889" lon="0.9297461118681356"><ele>293.0</ele><time>2026-04-01T14:20:59Z</time></trkpt><trkpt lat="43.14280653411187" lon="0.9297747700942209"><ele>293.0</ele><time>2026-04-01T14:21:00Z</time></trkpt><trkpt lat="43.14274040254874" lon="0.9298021705056861"><ele>293.0</ele><time>2026-04-01T14:21:01Z</time></trkpt><trkpt lat="43.14263396973827" lon="0.9298424666117039"><ele>293.0</ele><time>2026-04-01T14:21:03Z</time></trkpt><trkpt lat="43.142552417991986" lon="0.9298846150005983"><ele>293.0</ele><time>2026-04-01T14:21:08Z</time></trkpt><trkpt lat="43.14243448216167" lon="0.929938902791758"><ele>293.0</ele><time>2026-04-01T14:21:10Z</time></trkpt><trkpt lat="43.142339752626235" lon="0.9299888484999042"><ele>293.0</ele><time>2026-04-01T14:21:12Z</time></trkpt><trkpt lat="43.14228173579588" lon="0.9300311147053464"><ele>293.0</ele><time>2026-04-01T14:21:15Z</time></trkpt><trkpt lat="43.14222660512251" lon="0.9300789056628446"><ele>293.0</ele><time>2026-04-01T14:22:46Z</time></trkpt><trkpt lat="43.14213537986255" lon="0.9301245933214588"><ele>292.2</ele><time>2026-04-01T14:22:53Z</time></trkpt><trkpt lat="43.14205291835932" lon="0.930130849807936"><ele>291.4</ele><time>2026-04-01T14:22:54Z</time></trkpt><trkpt lat="43.14196997489022" lon="0.930173198753059"><ele>290.59999999999997</ele><time>2026-04-01T14:22:55Z</time></trkpt><trkpt lat="43.14188103402404" lon="0.9302186098240136"><ele>289.8</ele><time>2026-04-01T14:22:56Z</time></trkpt><trkpt lat="43.141783599423846" lon="0.9302684753812658"><ele>289.0</ele><time>2026-04-01T14:22:57Z</time></trkpt><trkpt lat="43.14168656648972" lon="0.9303183934341348"><ele>289.0</ele><time>2026-04-01T14:22:58Z</time></trkpt><trkpt lat="43.141603205114535" lon="0.9303585704875952"><ele>289.0</ele><time>2026-04-01T14:22:59Z</time></trkpt><trkpt lat="43.14152749264821" lon="0.9303924568390337"><ele>289.0</ele><time>2026-04-01T14:23:00Z</time></trkpt><trkpt lat="43.141466491323534" lon="0.9304177416375548"><ele>289.0</ele><time>2026-04-01T14:23:01Z</time></trkpt><trkpt lat="43.14137111097" lon="0.930461037132459"><ele>289.0</ele><time>2026-04-01T14:23:03Z</time></trkpt><trkpt lat="43.141306943034515" lon="0.9304948669018012"><ele>289.0</ele><time>2026-04-01T14:23:04Z</time></trkpt><trkpt lat="43.141229112910196" lon="0.9305358994744797"><ele>289.8</ele><time>2026-04-01T14:23:05Z</time></trkpt><trkpt lat="43.141171744165305" lon="0.9305937538455888"><ele>290.59999999999997</ele><time>2026-04-01T14:23:06Z</time></trkpt><trkpt lat="43.14107858570359" lon="0.9306026369093786"><ele>291.4</ele><time>2026-04-01T14:23:08Z</time></trkpt><trkpt lat="43.141007418417274" lon="0.930535671963618"><ele>292.2</ele><time>2026-04-01T14:23:10Z</time></trkpt><trkpt lat="43.14093440278024" lon="0.9303808576390454"><ele>293.0</ele><time>2026-04-01T14:23:14Z</time></trkpt><trkpt lat="43.1409410857208" lon="0.9302819705121346"><ele>293.0</ele><time>2026-04-01T14:23:17Z</time></trkpt><trkpt lat="43.14098234703006" lon="0.9303984541156406"><ele>293.0</ele><time>2026-04-01T14:24:00Z</time></trkpt><trkpt lat="43.14101976334977" lon="0.9305112956741257"><ele>293.0</ele><time>2026-04-01T14:24:02Z</time></trkpt><trkpt lat="43.14104596317755" lon="0.9306028843577866"><ele>293.0</ele><time>2026-04-01T14:24:04Z</time></trkpt><trkpt lat="43.1409164687249" lon="0.9307329580911038"><ele>293.0</ele><time>2026-04-01T14:24:07Z</time></trkpt><trkpt lat="43.14084510917406" lon="0.9307712508976372"><ele>293.0</ele><time>2026-04-01T14:24:08Z</time></trkpt><trkpt lat="43.14076295439371" lon="0.9308137319829901"><ele>293.0</ele><time>2026-04-01T14:24:09Z</time></trkpt><trkpt lat="43.140667982373046" lon="0.9308223803676428"><ele>293.0</ele><time>2026-04-01T14:24:10Z</time></trkpt><trkpt lat="43.14058787146925" lon="0.9308769888286327"><ele>293.0</ele><time>2026-04-01T14:24:11Z</time></trkpt><trkpt lat="43.1404959019264" lon="0.9309165702034411"><ele>293.0</ele><time>2026-04-01T14:24:12Z</time></trkpt><trkpt lat="43.14040259806303" lon="0.9309596512543221"><ele>292.5</ele><time>2026-04-01T14:24:13Z</time></trkpt><trkpt lat="43.140311602211035" lon="0.9309727815746041"><ele>292.0</ele><time>2026-04-01T14:24:14Z</time></trkpt><trkpt lat="43.14023825153578" lon="0.9309987763686096"><ele>291.5</ele><time>2026-04-01T14:24:15Z</time></trkpt><trkpt lat="43.1401677456538" lon="0.9310237630019899"><ele>291.0</ele><time>2026-04-01T14:24:16Z</time></trkpt><trkpt lat="43.140101707370754" lon="0.9310381349004783"><ele>290.5</ele><time>2026-04-01T14:24:17Z</time></trkpt><trkpt lat="43.13999334981896" lon="0.9310578104770563"><ele>290.0</ele><time>2026-04-01T14:24:18Z</time></trkpt><trkpt lat="43.13989004032238" lon="0.9310765694334308"><ele>290.6</ele><time>2026-04-01T14:24:19Z</time></trkpt><trkpt lat="43.13980287273636" lon="0.9310925118632187"><ele>291.2</ele><time>2026-04-01T14:24:20Z</time></trkpt><trkpt lat="43.13970321412679" lon="0.9311139931303345"><ele>291.8</ele><time>2026-04-01T14:24:21Z</time></trkpt><trkpt lat="43.139598513911665" lon="0.9311366552865201"><ele>292.4</ele><time>2026-04-01T14:24:22Z</time></trkpt><trkpt lat="43.13947921466209" lon="0.9311624773742998"><ele>293.0</ele><time>2026-04-01T14:24:23Z</time></trkpt><trkpt lat="43.13934407918428" lon="0.9311856116791182"><ele>293.0</ele><time>2026-04-01T14:24:24Z</time></trkpt><trkpt lat="43.13920509151459" lon="0.9312456948210073"><ele>293.0</ele><time>2026-04-01T14:24:25Z</time></trkpt><trkpt lat="43.13906751179451" lon="0.9312633947488981"><ele>293.0</ele><time>2026-04-01T14:24:26Z</time></trkpt><trkpt lat="43.138926632501274" lon="0.9312806304918491"><ele>293.0</ele><time>2026-04-01T14:24:27Z</time></trkpt><trkpt lat="43.13879045320187" lon="0.9313145128292397"><ele>292.75</ele><time>2026-04-01T14:24:28Z</time></trkpt><trkpt lat="43.138654443926164" lon="0.9313184768461957"><ele>292.5</ele><time>2026-04-01T14:24:29Z</time></trkpt><trkpt lat="43.13853601895145" lon="0.931345932558338"><ele>292.25</ele><time>2026-04-01T14:24:30Z</time></trkpt><trkpt lat="43.13843222101795" lon="0.9313699971294034"><ele>292.0</ele><time>2026-04-01T14:24:31Z</time></trkpt><trkpt lat="43.13833911971161" lon="0.931391581790789"><ele>292.0</ele><time>2026-04-01T14:24:32Z</time></trkpt><trkpt lat="43.13824574740502" lon="0.9314132292871691"><ele>292.0</ele><time>2026-04-01T14:24:33Z</time></trkpt><trkpt lat="43.13813870018265" lon="0.9314380101258877"><ele>292.0</ele><time>2026-04-01T14:24:34Z</time></trkpt><trkpt lat="43.13802606020043" lon="0.9314640984306795"><ele>292.0</ele><time>2026-04-01T14:24:35Z</time></trkpt><trkpt lat="43.137889030504454" lon="0.9315175626929817"><ele>292.0</ele><time>2026-04-01T14:24:36Z</time></trkpt><trkpt lat="43.13773669184856" lon="0.9315497004333598"><ele>292.0</ele><time>2026-04-01T14:24:37Z</time></trkpt><trkpt lat="43.13756151876938" lon="0.9315992372730958"><ele>292.0</ele><time>2026-04-01T14:24:38Z</time></trkpt><trkpt lat="43.137360260192736" lon="0.9316297958936024"><ele>292.66666666666663</ele><time>2026-04-01T14:24:39Z</time></trkpt><trkpt lat="43.13714503551648" lon="0.9317051157217839"><ele>293.3333333333333</ele><time>2026-04-01T14:24:40Z</time></trkpt><trkpt lat="43.13694854474749" lon="0.931748285942096"><ele>294.0</ele><time>2026-04-01T14:24:41Z</time></trkpt><trkpt lat="43.136772467573884" lon="0.9317998537286161"><ele>294.0</ele><time>2026-04-01T14:24:42Z</time></trkpt><trkpt lat="43.13659943680478" lon="0.9318453872160061"><ele>294.0</ele><time>2026-04-01T14:24:43Z</time></trkpt><trkpt lat="43.136424691305166" lon="0.9318688350337482"><ele>294.0</ele><time>2026-04-01T14:24:44Z</time></trkpt><trkpt lat="43.13626077714279" lon="0.9319091804275796"><ele>293.6666666666667</ele><time>2026-04-01T14:24:45Z</time></trkpt><trkpt lat="43.1360996068883" lon="0.9319486509114356"><ele>293.33333333333337</ele><time>2026-04-01T14:24:46Z</time></trkpt><trkpt lat="43.13594246201351" lon="0.9320080902070594"><ele>293.0</ele><time>2026-04-01T14:24:47Z</time></trkpt><trkpt lat="43.135773003098485" lon="0.9320366923224084"><ele>293.6666666666667</ele><time>2026-04-01T14:24:48Z</time></trkpt><trkpt lat="43.13560673828836" lon="0.932075903551313"><ele>294.3333333333333</ele><time>2026-04-01T14:24:49Z</time></trkpt><trkpt lat="43.13544235633293" lon="0.9321140608851068"><ele>295.0</ele><time>2026-04-01T14:24:50Z</time></trkpt><trkpt lat="43.13527364982163" lon="0.9321525430444525"><ele>295.0</ele><time>2026-04-01T14:24:51Z</time></trkpt><trkpt lat="43.13510569058646" lon="0.9321952698464869"><ele>295.0</ele><time>2026-04-01T14:24:52Z</time></trkpt><trkpt lat="43.134943090672564" lon="0.9322419458723405"><ele>295.0</ele><time>2026-04-01T14:24:53Z</time></trkpt><trkpt lat="43.13477797413318" lon="0.932286153457657"><ele>294.66666666666663</ele><time>2026-04-01T14:24:54Z</time></trkpt><trkpt lat="43.134615284478116" lon="0.9323178080207462"><ele>294.3333333333333</ele><time>2026-04-01T14:24:55Z</time></trkpt><trkpt lat="43.134450844040586" lon="0.932360374028663"><ele>294.0</ele><time>2026-04-01T14:24:56Z</time></trkpt><trkpt lat="43.13428888168831" lon="0.9324032820554964"><ele>294.0</ele><time>2026-04-01T14:24:57Z</time></trkpt><trkpt lat="43.13412507895213" lon="0.9324440190541686"><ele>294.0</ele><time>2026-04-01T14:24:58Z</time></trkpt><trkpt lat="43.133962972019255" lon="0.9324853941648948"><ele>294.0</ele><time>2026-04-01T14:24:59Z</time></trkpt><trkpt lat="43.13379984699062" lon="0.9325267098550528"><ele>294.3333333333333</ele><time>2026-04-01T14:25:00Z</time></trkpt><trkpt lat="43.13364466003797" lon="0.9325607077743624"><ele>294.66666666666663</ele><time>2026-04-01T14:25:01Z</time></trkpt><trkpt lat="43.13348341622678" lon="0.9326003260765456"><ele>295.0</ele><time>2026-04-01T14:25:02Z</time></trkpt><trkpt lat="43.133320797961204" lon="0.9326395112771337"><ele>294.66666666666663</ele><time>2026-04-01T14:25:03Z</time></trkpt><trkpt lat="43.13314642050499" lon="0.9326840971828396"><ele>294.3333333333333</ele><time>2026-04-01T14:25:04Z</time></trkpt><trkpt lat="43.13297542591207" lon="0.9327284025136738"><ele>294.0</ele><time>2026-04-01T14:25:05Z</time></trkpt><trkpt lat="43.13280011418299" lon="0.9327714459966958"><ele>294.0</ele><time>2026-04-01T14:25:06Z</time></trkpt><trkpt lat="43.132627224817654" lon="0.9328142630687319"><ele>294.0</ele><time>2026-04-01T14:25:07Z</time></trkpt><trkpt lat="43.13245437298623" lon="0.9328560287878219"><ele>294.0</ele><time>2026-04-01T14:25:08Z</time></trkpt><trkpt lat="43.132295643400056" lon="0.9328914732129425"><ele>294.25</ele><time>2026-04-01T14:25:09Z</time></trkpt><trkpt lat="43.13214765790806" lon="0.9329309971775307"><ele>294.5</ele><time>2026-04-01T14:25:10Z</time></trkpt><trkpt lat="43.1320157910386" lon="0.9329634802705521"><ele>294.75</ele><time>2026-04-01T14:25:11Z</time></trkpt><trkpt lat="43.13190029153599" lon="0.9329907524191203"><ele>295.0</ele><time>2026-04-01T14:25:12Z</time></trkpt><trkpt lat="43.13179423378576" lon="0.9330182154725768"><ele>295.0</ele><time>2026-04-01T14:25:13Z</time></trkpt><trkpt lat="43.13170223743641" lon="0.9330404557512761"><ele>295.0</ele><time>2026-04-01T14:25:14Z</time></trkpt><trkpt lat="43.131622498471295" lon="0.9330607539072681"><ele>295.0</ele><time>2026-04-01T14:25:15Z</time></trkpt><trkpt lat="43.13154965271558" lon="0.9330783966108389"><ele>295.0</ele><time>2026-04-01T14:25:16Z</time></trkpt><trkpt lat="43.13148314962039" lon="0.9330938553583153"><ele>295.0</ele><time>2026-04-01T14:25:17Z</time></trkpt><trkpt lat="43.13135320597009" lon="0.9331238605101516"><ele>295.0</ele><time>2026-04-01T14:25:19Z</time></trkpt><trkpt lat="43.131285071694045" lon="0.9331397072873411"><ele>294.8333333333333</ele><time>2026-04-01T14:25:20Z</time></trkpt><trkpt lat="43.13121622947944" lon="0.933160036601975"><ele>294.66666666666663</ele><time>2026-04-01T14:25:21Z</time></trkpt><trkpt lat="43.13114059934632" lon="0.9331764397353034"><ele>294.5</ele><time>2026-04-01T14:25:22Z</time></trkpt><trkpt lat="43.1310630474886" lon="0.9331958211359149"><ele>294.3333333333333</ele><time>2026-04-01T14:25:23Z</time></trkpt><trkpt lat="43.130985318824045" lon="0.9332206322881588"><ele>294.1666666666667</ele><time>2026-04-01T14:25:24Z</time></trkpt><trkpt lat="43.1309006042487" lon="0.9332460824154053"><ele>294.0</ele><time>2026-04-01T14:25:25Z</time></trkpt><trkpt lat="43.13079745204516" lon="0.9332672180951097"><ele>294.5</ele><time>2026-04-01T14:25:26Z</time></trkpt><trkpt lat="43.130686185948115" lon="0.9332901145217287"><ele>295.0</ele><time>2026-04-01T14:25:27Z</time></trkpt><trkpt lat="43.13055369920099" lon="0.9333187991508297"><ele>295.5</ele><time>2026-04-01T14:25:28Z</time></trkpt><trkpt lat="43.13039787584405" lon="0.93335701501175"><ele>296.0</ele><time>2026-04-01T14:25:29Z</time></trkpt><trkpt lat="43.13022532067313" lon="0.9334011064848823"><ele>296.0</ele><time>2026-04-01T14:25:30Z</time></trkpt><trkpt lat="43.13006987688896" lon="0.9334419913092632"><ele>296.0</ele><time>2026-04-01T14:25:31Z</time></trkpt><trkpt lat="43.129918099980394" lon="0.9334839930839021"><ele>296.0</ele><time>2026-04-01T14:25:32Z</time></trkpt><trkpt lat="43.12977142638446" lon="0.9335196425432004"><ele>296.6666666666667</ele><time>2026-04-01T14:25:33Z</time></trkpt><trkpt lat="43.12962446111094" lon="0.9335531618922629"><ele>297.3333333333333</ele><time>2026-04-01T14:25:34Z</time></trkpt><trkpt lat="43.12947382818553" lon="0.9335901689435707"><ele>298.0</ele><time>2026-04-01T14:25:35Z</time></trkpt><trkpt lat="43.129319922508046" lon="0.9336278827349889"><ele>298.0</ele><time>2026-04-01T14:25:36Z</time></trkpt><trkpt lat="43.1291652555179" lon="0.9336682520202777"><ele>298.0</ele><time>2026-04-01T14:25:37Z</time></trkpt><trkpt lat="43.129009801984026" lon="0.9337087213521778"><ele>298.0</ele><time>2026-04-01T14:25:38Z</time></trkpt><trkpt lat="43.128854251231715" lon="0.9337484450354537"><ele>298.3333333333333</ele><time>2026-04-01T14:25:39Z</time></trkpt><trkpt lat="43.1286982345465" lon="0.9337890247899651"><ele>298.6666666666667</ele><time>2026-04-01T14:25:40Z</time></trkpt><trkpt lat="43.128543657472974" lon="0.9338321004049878"><ele>299.0</ele><time>2026-04-01T14:25:41Z</time></trkpt><trkpt lat="43.128387623672154" lon="0.933878385404839"><ele>299.0</ele><time>2026-04-01T14:25:42Z</time></trkpt><trkpt lat="43.128229992935466" lon="0.9339308515506419"><ele>299.0</ele><time>2026-04-01T14:25:43Z</time></trkpt><trkpt lat="43.12807436185586" lon="0.9339868667101306"><ele>299.0</ele><time>2026-04-01T14:25:44Z</time></trkpt><trkpt lat="43.12791697730944" lon="0.9340429785914626"><ele>299.0</ele><time>2026-04-01T14:25:45Z</time></trkpt><trkpt lat="43.12776048091887" lon="0.9340967952694726"><ele>299.0</ele><time>2026-04-01T14:25:46Z</time></trkpt><trkpt lat="43.12760447903131" lon="0.9341523620798938"><ele>299.0</ele><time>2026-04-01T14:25:47Z</time></trkpt><trkpt lat="43.127448182590676" lon="0.9342101333491414"><ele>299.33333333333337</ele><time>2026-04-01T14:25:48Z</time></trkpt><trkpt lat="43.12729124513524" lon="0.934267594835644"><ele>299.6666666666667</ele><time>2026-04-01T14:25:49Z</time></trkpt><trkpt lat="43.127135421515135" lon="0.9343258963910361"><ele>300.0</ele><time>2026-04-01T14:25:50Z</time></trkpt><trkpt lat="43.12698004882774" lon="0.9343852489389937"><ele>300.0</ele><time>2026-04-01T14:25:51Z</time></trkpt><trkpt lat="43.12682453966748" lon="0.9344468688046949"><ele>300.0</ele><time>2026-04-01T14:25:52Z</time></trkpt><trkpt lat="43.12666759680674" lon="0.9345111232583884"><ele>300.0</ele><time>2026-04-01T14:25:53Z</time></trkpt><trkpt lat="43.12650971597567" lon="0.9345753656453405"><ele>300.3333333333333</ele><time>2026-04-01T14:25:54Z</time></trkpt><trkpt lat="43.12635165217367" lon="0.9346418984619616"><ele>300.66666666666663</ele><time>2026-04-01T14:25:55Z</time></trkpt><trkpt lat="43.12619102769201" lon="0.9347057467722736"><ele>301.0</ele><time>2026-04-01T14:25:56Z</time></trkpt><trkpt lat="43.12603088501139" lon="0.9347696159702291"><ele>301.0</ele><time>2026-04-01T14:25:57Z</time></trkpt><trkpt lat="43.125873157988394" lon="0.9348328581576119"><ele>301.0</ele><time>2026-04-01T14:25:58Z</time></trkpt><trkpt lat="43.12571343215605" lon="0.934893368317249"><ele>301.0</ele><time>2026-04-01T14:25:59Z</time></trkpt><trkpt lat="43.12555603826562" lon="0.9349533667915253"><ele>301.0</ele><time>2026-04-01T14:26:00Z</time></trkpt><trkpt lat="43.12539631960559" lon="0.9350147807413899"><ele>301.0</ele><time>2026-04-01T14:26:01Z</time></trkpt><trkpt lat="43.12523762018846" lon="0.9350755342867184"><ele>301.0</ele><time>2026-04-01T14:26:02Z</time></trkpt><trkpt lat="43.12507734710413" lon="0.9351371996874349"><ele>300.66666666666663</ele><time>2026-04-01T14:26:03Z</time></trkpt><trkpt lat="43.12492421468371" lon="0.9351983102514971"><ele>300.3333333333333</ele><time>2026-04-01T14:26:04Z</time></trkpt><trkpt lat="43.1247792712683" lon="0.9352551494850454"><ele>300.0</ele><time>2026-04-01T14:26:05Z</time></trkpt><trkpt lat="43.124643536776944" lon="0.9353071846844896"><ele>300.0</ele><time>2026-04-01T14:26:06Z</time></trkpt><trkpt lat="43.12451572949269" lon="0.9353531154228066"><ele>300.0</ele><time>2026-04-01T14:26:07Z</time></trkpt><trkpt lat="43.124394418594605" lon="0.9353963062755702"><ele>300.0</ele><time>2026-04-01T14:26:08Z</time></trkpt><trkpt lat="43.12427997212538" lon="0.9354390475866667"><ele>300.0</ele><time>2026-04-01T14:26:09Z</time></trkpt><trkpt lat="43.124162541163706" lon="0.9354834811828835"><ele>300.6</ele><time>2026-04-01T14:26:10Z</time></trkpt><trkpt lat="43.12404556488905" lon="0.9355311373333852"><ele>301.2</ele><time>2026-04-01T14:26:11Z</time></trkpt><trkpt lat="43.12392926429097" lon="0.9355776862586389"><ele>301.8</ele><time>2026-04-01T14:26:12Z</time></trkpt><trkpt lat="43.12382403730588" lon="0.9356196810374978"><ele>302.4</ele><time>2026-04-01T14:26:13Z</time></trkpt><trkpt lat="43.12373235857351" lon="0.9356579292313294"><ele>303.0</ele><time>2026-04-01T14:26:14Z</time></trkpt><trkpt lat="43.123643716617956" lon="0.9356879552563951"><ele>303.0</ele><time>2026-04-01T14:26:15Z</time></trkpt><trkpt lat="43.12355539533173" lon="0.9357124741386514"><ele>303.0</ele><time>2026-04-01T14:26:16Z</time></trkpt><trkpt lat="43.12346747018454" lon="0.9357273281567265"><ele>303.0</ele><time>2026-04-01T14:26:17Z</time></trkpt><trkpt lat="43.123379296303696" lon="0.9357246422103946"><ele>303.0</ele><time>2026-04-01T14:26:18Z</time></trkpt><trkpt lat="43.12329543822853" lon="0.9356960530522431"><ele>303.0</ele><time>2026-04-01T14:26:19Z</time></trkpt><trkpt lat="43.12321767619461" lon="0.9356414131741909"><ele>303.0</ele><time>2026-04-01T14:26:20Z</time></trkpt><trkpt lat="43.12314413854889" lon="0.9355760298858643"><ele>303.1666666666667</ele><time>2026-04-01T14:26:21Z</time></trkpt><trkpt lat="43.123064039044294" lon="0.9355221608466385"><ele>303.3333333333333</ele><time>2026-04-01T14:26:22Z</time></trkpt><trkpt lat="43.122977116760396" lon="0.9355104136189687"><ele>303.5</ele><time>2026-04-01T14:26:23Z</time></trkpt><trkpt lat="43.12289655097617" lon="0.9355377682946888"><ele>303.66666666666663</ele><time>2026-04-01T14:26:24Z</time></trkpt><trkpt lat="43.122818068274285" lon="0.9355938721828577"><ele>303.8333333333333</ele><time>2026-04-01T14:26:25Z</time></trkpt><trkpt lat="43.122749247215495" lon="0.9356575665508355"><ele>304.0</ele><time>2026-04-01T14:26:26Z</time></trkpt><trkpt lat="43.12267441796071" lon="0.9357058796488013"><ele>304.0</ele><time>2026-04-01T14:26:27Z</time></trkpt><trkpt lat="43.122579773821094" lon="0.9357300598995478"><ele>304.0</ele><time>2026-04-01T14:26:28Z</time></trkpt><trkpt lat="43.12247281660304" lon="0.935729271367479"><ele>304.0</ele><time>2026-04-01T14:26:29Z</time></trkpt><trkpt lat="43.122353291314774" lon="0.935705634096915"><ele>304.0</ele><time>2026-04-01T14:26:30Z</time></trkpt><trkpt lat="43.122225906519354" lon="0.9356831476261337"><ele>305.0</ele><time>2026-04-01T14:26:31Z</time></trkpt><trkpt lat="43.12209325335406" lon="0.9356539809179153"><ele>306.0</ele><time>2026-04-01T14:26:32Z</time></trkpt><trkpt lat="43.12195846987252" lon="0.9356232588312773"><ele>307.0</ele><time>2026-04-01T14:26:33Z</time></trkpt><trkpt lat="43.12182038698814" lon="0.9355966333372532"><ele>308.0</ele><time>2026-04-01T14:26:34Z</time></trkpt><trkpt lat="43.12167633401261" lon="0.9355651510053263"><ele>311.0</ele><time>2026-04-01T14:26:35Z</time></trkpt><trkpt lat="43.121526751990864" lon="0.9355361701492486"><ele>314.0</ele><time>2026-04-01T14:26:36Z</time></trkpt><trkpt lat="43.121377979237664" lon="0.9355079895034341"><ele>317.0</ele><time>2026-04-01T14:26:37Z</time></trkpt><trkpt lat="43.12122949901088" lon="0.9354762017901205"><ele>317.0</ele><time>2026-04-01T14:26:38Z</time></trkpt><trkpt lat="43.121081906655434" lon="0.9354367197726455"><ele>317.0</ele><time>2026-04-01T14:26:39Z</time></trkpt><trkpt lat="43.12093735447269" lon="0.935383096582546"><ele>317.0</ele><time>2026-04-01T14:26:40Z</time></trkpt><trkpt lat="43.12079510433873" lon="0.9353109346082411"><ele>319.33333333333337</ele><time>2026-04-01T14:26:41Z</time></trkpt><trkpt lat="43.12065820768726" lon="0.9352192009732666"><ele>321.6666666666667</ele><time>2026-04-01T14:26:42Z</time></trkpt><trkpt lat="43.12053036008505" lon="0.935104149009949"><ele>324.0</ele><time>2026-04-01T14:26:43Z</time></trkpt><trkpt lat="43.12040973403413" lon="0.9349664435555276"><ele>324.0</ele><time>2026-04-01T14:26:44Z</time></trkpt><trkpt lat="43.12029931161274" lon="0.9348050753682314"><ele>324.0</ele><time>2026-04-01T14:26:45Z</time></trkpt><trkpt lat="43.12020351672784" lon="0.9346185551533426"><ele>324.0</ele><time>2026-04-01T14:26:46Z</time></trkpt><trkpt lat="43.12012002472914" lon="0.934410798592946"><ele>322.3333333333333</ele><time>2026-04-01T14:26:47Z</time></trkpt><trkpt lat="43.120052780019776" lon="0.9341895744091632"><ele>320.66666666666663</ele><time>2026-04-01T14:26:48Z</time></trkpt><trkpt lat="43.120000911313156" lon="0.9339592332505019"><ele>319.0</ele><time>2026-04-01T14:26:49Z</time></trkpt><trkpt lat="43.11996020457604" lon="0.9337219445083882"><ele>319.0</ele><time>2026-04-01T14:26:50Z</time></trkpt><trkpt lat="43.11991704294449" lon="0.9334849521640538"><ele>319.0</ele><time>2026-04-01T14:26:51Z</time></trkpt><trkpt lat="43.11987203435017" lon="0.933246872276339"><ele>319.0</ele><time>2026-04-01T14:26:52Z</time></trkpt><trkpt lat="43.11982567205741" lon="0.9330121398402709"><ele>323.3333333333333</ele><time>2026-04-01T14:26:53Z</time></trkpt><trkpt lat="43.119783551572596" lon="0.9327900414627915"><ele>327.6666666666667</ele><time>2026-04-01T14:26:54Z</time></trkpt><trkpt lat="43.11974240692337" lon="0.9325669249001819"><ele>332.0</ele><time>2026-04-01T14:26:55Z</time></trkpt><trkpt lat="43.11969469449888" lon="0.9323638057028939"><ele>332.0</ele><time>2026-04-01T14:26:56Z</time></trkpt><trkpt lat="43.11963730452005" lon="0.932181281918636"><ele>332.0</ele><time>2026-04-01T14:26:57Z</time></trkpt><trkpt lat="43.11956655805563" lon="0.9320171414546912"><ele>332.0</ele><time>2026-04-01T14:26:58Z</time></trkpt><trkpt lat="43.11947529478121" lon="0.9318850934178056"><ele>332.0</ele><time>2026-04-01T14:26:59Z</time></trkpt><trkpt lat="43.119375151674284" lon="0.931764478342013"><ele>329.5</ele><time>2026-04-01T14:27:00Z</time></trkpt><trkpt lat="43.11926221136985" lon="0.9316825889602635"><ele>327.0</ele><time>2026-04-01T14:27:01Z</time></trkpt><trkpt lat="43.11914563825697" lon="0.931637128816516"><ele>324.5</ele><time>2026-04-01T14:27:02Z</time></trkpt><trkpt lat="43.11902669860142" lon="0.9316201347906757"><ele>322.0</ele><time>2026-04-01T14:27:03Z</time></trkpt><trkpt lat="43.118907747600375" lon="0.931629432281837"><ele>321.75</ele><time>2026-04-01T14:27:04Z</time></trkpt><trkpt lat="43.11878848667073" lon="0.9316639925417526"><ele>321.5</ele><time>2026-04-01T14:27:05Z</time></trkpt><trkpt lat="43.11866632498581" lon="0.9317146021135715"><ele>321.25</ele><time>2026-04-01T14:27:06Z</time></trkpt><trkpt lat="43.11857296457016" lon="0.9318201085511043"><ele>321.0</ele><time>2026-04-01T14:27:07Z</time></trkpt><trkpt lat="43.1184825787726" lon="0.9319467376694106"><ele>322.0</ele><time>2026-04-01T14:27:08Z</time></trkpt><trkpt lat="43.11839911357473" lon="0.9320724761815434"><ele>323.0</ele><time>2026-04-01T14:27:09Z</time></trkpt><trkpt lat="43.11832266659231" lon="0.9322236249960161"><ele>324.0</ele><time>2026-04-01T14:27:10Z</time></trkpt><trkpt lat="43.11824879938388" lon="0.9323845635746886"><ele>325.0</ele><time>2026-04-01T14:27:11Z</time></trkpt><trkpt lat="43.11818185722133" lon="0.9325538637265018"><ele>325.66666666666663</ele><time>2026-04-01T14:27:12Z</time></trkpt><trkpt lat="43.11811950400925" lon="0.9327370450854033"><ele>326.3333333333333</ele><time>2026-04-01T14:27:13Z</time></trkpt><trkpt lat="43.118057535017634" lon="0.9329269576449116"><ele>327.0</ele><time>2026-04-01T14:27:14Z</time></trkpt><trkpt lat="43.1179947584286" lon="0.9331202497215055"><ele>327.0</ele><time>2026-04-01T14:27:15Z</time></trkpt><trkpt lat="43.1179296668794" lon="0.9333146485128776"><ele>327.0</ele><time>2026-04-01T14:27:16Z</time></trkpt><trkpt lat="43.117864366937134" lon="0.9335094500715705"><ele>327.0</ele><time>2026-04-01T14:27:17Z</time></trkpt><trkpt lat="43.11780014096196" lon="0.9337072175828456"><ele>327.6666666666667</ele><time>2026-04-01T14:27:18Z</time></trkpt><trkpt lat="43.11773370988839" lon="0.9339045908884257"><ele>328.33333333333337</ele><time>2026-04-01T14:27:19Z</time></trkpt><trkpt lat="43.11766863317289" lon="0.9340966005807599"><ele>329.0</ele><time>2026-04-01T14:27:20Z</time></trkpt><trkpt lat="43.117606054110695" lon="0.9342809065138483"><ele>329.25</ele><time>2026-04-01T14:27:21Z</time></trkpt><trkpt lat="43.11754775249255" lon="0.9344512347100146"><ele>329.5</ele><time>2026-04-01T14:27:22Z</time></trkpt><trkpt lat="43.117494425475165" lon="0.9346109386407806"><ele>329.75</ele><time>2026-04-01T14:27:23Z</time></trkpt><trkpt lat="43.11744453641741" lon="0.9347615034119383"><ele>330.0</ele><time>2026-04-01T14:27:24Z</time></trkpt><trkpt lat="43.11738706563408" lon="0.9349343507390437"><ele>330.0</ele><time>2026-04-01T14:27:25Z</time></trkpt><trkpt lat="43.11732227001921" lon="0.9351206552845012"><ele>330.0</ele><time>2026-04-01T14:27:26Z</time></trkpt><trkpt lat="43.1172666699881" lon="0.9352808557856085"><ele>330.0</ele><time>2026-04-01T14:27:27Z</time></trkpt><trkpt lat="43.11721074935769" lon="0.9354297690802115"><ele>330.0</ele><time>2026-04-01T14:27:28Z</time></trkpt><trkpt lat="43.11715292526594" lon="0.9355652999287"><ele>330.0</ele><time>2026-04-01T14:27:29Z</time></trkpt><trkpt lat="43.117091287953365" lon="0.9356953162317987"><ele>330.0</ele><time>2026-04-01T14:27:30Z</time></trkpt><trkpt lat="43.11702433846728" lon="0.9358351753481807"><ele>330.0</ele><time>2026-04-01T14:27:31Z</time></trkpt><trkpt lat="43.1169935175344" lon="0.9360158196945733"><ele>330.0</ele><time>2026-04-01T14:27:32Z</time></trkpt><trkpt lat="43.11690491474115" lon="0.9361798325063405"><ele>331.5</ele><time>2026-04-01T14:27:33Z</time></trkpt><trkpt lat="43.11680225241658" lon="0.9363294698975938"><ele>333.0</ele><time>2026-04-01T14:27:34Z</time></trkpt><trkpt lat="43.11668952110499" lon="0.9364496748799532"><ele>334.5</ele><time>2026-04-01T14:27:35Z</time></trkpt><trkpt lat="43.116573192757805" lon="0.9365356210755349"><ele>336.0</ele><time>2026-04-01T14:27:36Z</time></trkpt><trkpt lat="43.11645294404374" lon="0.9365931450504537"><ele>336.0</ele><time>2026-04-01T14:27:37Z</time></trkpt><trkpt lat="43.11632625706576" lon="0.9366030083624634"><ele>336.0</ele><time>2026-04-01T14:27:38Z</time></trkpt><trkpt lat="43.116209811904625" lon="0.9366110433168408"><ele>336.0</ele><time>2026-04-01T14:27:39Z</time></trkpt><trkpt lat="43.11610370385759" lon="0.936605881328326"><ele>336.0</ele><time>2026-04-01T14:27:40Z</time></trkpt><trkpt lat="43.11599569122598" lon="0.936605028365577"><ele>336.0</ele><time>2026-04-01T14:27:41Z</time></trkpt><trkpt lat="43.11588566756269" lon="0.9365721041563407"><ele>336.0</ele><time>2026-04-01T14:27:42Z</time></trkpt><trkpt lat="43.115771455429126" lon="0.9365436109568664"><ele>336.0</ele><time>2026-04-01T14:27:43Z</time></trkpt><trkpt lat="43.11565487140194" lon="0.9365161712482201"><ele>336.0</ele><time>2026-04-01T14:27:44Z</time></trkpt><trkpt lat="43.11553556944364" lon="0.93649363641272"><ele>336.5</ele><time>2026-04-01T14:27:45Z</time></trkpt><trkpt lat="43.11541413820259" lon="0.9364609463295605"><ele>337.0</ele><time>2026-04-01T14:27:46Z</time></trkpt><trkpt lat="43.11529254200133" lon="0.9364245592382774"><ele>337.5</ele><time>2026-04-01T14:27:47Z</time></trkpt><trkpt lat="43.115173880234785" lon="0.9363893815805482"><ele>338.0</ele><time>2026-04-01T14:27:48Z</time></trkpt><trkpt lat="43.11506729622408" lon="0.936348839845979"><ele>338.0</ele><time>2026-04-01T14:27:49Z</time></trkpt><trkpt lat="43.11496777458102" lon="0.936311360446228"><ele>338.0</ele><time>2026-04-01T14:27:50Z</time></trkpt><trkpt lat="43.11486430687411" lon="0.9362677196258606"><ele>338.0</ele><time>2026-04-01T14:27:51Z</time></trkpt><trkpt lat="43.114751075257274" lon="0.9362278003350735"><ele>338.0</ele><time>2026-04-01T14:27:52Z</time></trkpt><trkpt lat="43.114628587924116" lon="0.9362019592323405"><ele>338.75</ele><time>2026-04-01T14:27:53Z</time></trkpt><trkpt lat="43.114487122792575" lon="0.9362082562098735"><ele>339.5</ele><time>2026-04-01T14:27:54Z</time></trkpt><trkpt lat="43.11433889695717" lon="0.9362350368912403"><ele>340.25</ele><time>2026-04-01T14:27:55Z</time></trkpt><trkpt lat="43.11418876902626" lon="0.9362821031842371"><ele>341.0</ele><time>2026-04-01T14:27:56Z</time></trkpt><trkpt lat="43.11404079542174" lon="0.9363405688197803"><ele>342.0</ele><time>2026-04-01T14:27:57Z</time></trkpt><trkpt lat="43.11388048501915" lon="0.9363953318312055"><ele>343.0</ele><time>2026-04-01T14:27:58Z</time></trkpt><trkpt lat="43.113698922585606" lon="0.9364429660070528"><ele>344.0</ele><time>2026-04-01T14:27:59Z</time></trkpt><trkpt lat="43.11351373341214" lon="0.9364965390221481"><ele>344.0</ele><time>2026-04-01T14:28:00Z</time></trkpt><trkpt lat="43.11333614967832" lon="0.9365585511624694"><ele>344.0</ele><time>2026-04-01T14:28:01Z</time></trkpt><trkpt lat="43.11316810946497" lon="0.9366170084939086"><ele>344.0</ele><time>2026-04-01T14:28:02Z</time></trkpt><trkpt lat="43.11301733457854" lon="0.9366781158242468"><ele>344.25</ele><time>2026-04-01T14:28:03Z</time></trkpt><trkpt lat="43.112882268679364" lon="0.9367443027271289"><ele>344.5</ele><time>2026-04-01T14:28:04Z</time></trkpt><trkpt lat="43.11275743975093" lon="0.9368087593105033"><ele>344.75</ele><time>2026-04-01T14:28:05Z</time></trkpt><trkpt lat="43.112642525013385" lon="0.9368746755562197"><ele>345.0</ele><time>2026-04-01T14:28:06Z</time></trkpt><trkpt lat="43.11253822158321" lon="0.9369371041934493"><ele>345.0</ele><time>2026-04-01T14:28:07Z</time></trkpt><trkpt lat="43.1124469325653" lon="0.9369973577658071"><ele>345.0</ele><time>2026-04-01T14:28:08Z</time></trkpt><trkpt lat="43.11236146224473" lon="0.9370315283546595"><ele>345.0</ele><time>2026-04-01T14:28:09Z</time></trkpt><trkpt lat="43.11228487783937" lon="0.9370730878660383"><ele>345.0</ele><time>2026-04-01T14:28:10Z</time></trkpt><trkpt lat="43.112213791796854" lon="0.9371116637146354"><ele>345.0</ele><time>2026-04-01T14:28:11Z</time></trkpt><trkpt lat="43.11214330923014" lon="0.9371499115598523"><ele>345.0</ele><time>2026-04-01T14:28:12Z</time></trkpt><trkpt lat="43.112088175487415" lon="0.9372072140109914"><ele>345.4</ele><time>2026-04-01T14:28:13Z</time></trkpt><trkpt lat="43.11197739611162" lon="0.9372432875118321"><ele>345.8</ele><time>2026-04-01T14:28:15Z</time></trkpt><trkpt lat="43.11191386216493" lon="0.9372713976077055"><ele>346.20000000000005</ele><time>2026-04-01T14:28:17Z</time></trkpt><trkpt lat="43.11183567382265" lon="0.937313039733465"><ele>346.6</ele><time>2026-04-01T14:28:30Z</time></trkpt><trkpt lat="43.111726124792796" lon="0.9373410087693083"><ele>347.0</ele><time>2026-04-01T14:28:31Z</time></trkpt><trkpt lat="43.11159410135918" lon="0.937383097972972"><ele>347.0</ele><time>2026-04-01T14:28:32Z</time></trkpt><trkpt lat="43.1114235658541" lon="0.9374285668502014"><ele>347.0</ele><time>2026-04-01T14:28:33Z</time></trkpt><trkpt lat="43.111237673762254" lon="0.937482547215419"><ele>347.0</ele><time>2026-04-01T14:28:34Z</time></trkpt><trkpt lat="43.1110341760707" lon="0.9375409267999404"><ele>347.0</ele><time>2026-04-01T14:28:35Z</time></trkpt><trkpt lat="43.11080922108231" lon="0.9376162694489846"><ele>347.0</ele><time>2026-04-01T14:28:36Z</time></trkpt><trkpt lat="43.11059024467683" lon="0.9376876653341915"><ele>348.0</ele><time>2026-04-01T14:28:37Z</time></trkpt><trkpt lat="43.110353317360996" lon="0.9377593965020522"><ele>349.0</ele><time>2026-04-01T14:28:38Z</time></trkpt><trkpt lat="43.11011431264166" lon="0.9378313211898759"><ele>350.5</ele><time>2026-04-01T14:28:39Z</time></trkpt><trkpt lat="43.10987980042433" lon="0.9379096012681568"><ele>352.0</ele><time>2026-04-01T14:28:40Z</time></trkpt><trkpt lat="43.10964581966567" lon="0.9379853967168872"><ele>352.0</ele><time>2026-04-01T14:28:41Z</time></trkpt><trkpt lat="43.10941337577055" lon="0.9380580389134704"><ele>352.0</ele><time>2026-04-01T14:28:42Z</time></trkpt><trkpt lat="43.10918337933929" lon="0.9381300167444616"><ele>353.5</ele><time>2026-04-01T14:28:43Z</time></trkpt><trkpt lat="43.108954464598206" lon="0.9382022907080029"><ele>355.0</ele><time>2026-04-01T14:28:44Z</time></trkpt><trkpt lat="43.108726706835355" lon="0.9382691899685107"><ele>355.0</ele><time>2026-04-01T14:28:45Z</time></trkpt><trkpt lat="43.10849554209205" lon="0.9383304660837407"><ele>355.0</ele><time>2026-04-01T14:28:46Z</time></trkpt><trkpt lat="43.10826741595057" lon="0.9383950729517001"><ele>358.5</ele><time>2026-04-01T14:28:47Z</time></trkpt><trkpt lat="43.10804037488834" lon="0.9384709783677873"><ele>362.0</ele><time>2026-04-01T14:28:48Z</time></trkpt><trkpt lat="43.10781207190904" lon="0.9385475092063267"><ele>362.0</ele><time>2026-04-01T14:28:49Z</time></trkpt><trkpt lat="43.10758674017162" lon="0.9386178886035819"><ele>362.0</ele><time>2026-04-01T14:28:50Z</time></trkpt><trkpt lat="43.107365162109545" lon="0.9386886740616912"><ele>363.33333333333337</ele><time>2026-04-01T14:28:51Z</time></trkpt><trkpt lat="43.107148872766395" lon="0.9387688986420681"><ele>364.6666666666667</ele><time>2026-04-01T14:28:52Z</time></trkpt><trkpt lat="43.10694074760679" lon="0.9388660847943224"><ele>366.0</ele><time>2026-04-01T14:28:53Z</time></trkpt><trkpt lat="43.1067444921022" lon="0.9389869467148069"><ele>367.5</ele><time>2026-04-01T14:28:54Z</time></trkpt><trkpt lat="43.10655075446136" lon="0.9391268721952413"><ele>369.0</ele><time>2026-04-01T14:28:55Z</time></trkpt><trkpt lat="43.10634988761233" lon="0.9392907681038547"><ele>369.0</ele><time>2026-04-01T14:28:56Z</time></trkpt><trkpt lat="43.10615096218805" lon="0.9394433018897683"><ele>369.0</ele><time>2026-04-01T14:28:57Z</time></trkpt><trkpt lat="43.10595752763689" lon="0.9395810681663229"><ele>369.0</ele><time>2026-04-01T14:28:58Z</time></trkpt><trkpt lat="43.10577846615796" lon="0.9397083214477339"><ele>370.3333333333333</ele><time>2026-04-01T14:28:59Z</time></trkpt><trkpt lat="43.10560601135648" lon="0.9398420266595076"><ele>371.66666666666663</ele><time>2026-04-01T14:29:00Z</time></trkpt><trkpt lat="43.105442681590695" lon="0.9399962507113069"><ele>373.0</ele><time>2026-04-01T14:29:01Z</time></trkpt><trkpt lat="43.10528930988824" lon="0.9401724707322685"><ele>370.3333333333333</ele><time>2026-04-01T14:29:02Z</time></trkpt><trkpt lat="43.10515381756227" lon="0.9403719714788283"><ele>367.6666666666667</ele><time>2026-04-01T14:29:03Z</time></trkpt><trkpt lat="43.10504272024627" lon="0.9405988177071171"><ele>365.0</ele><time>2026-04-01T14:29:04Z</time></trkpt><trkpt lat="43.10496121688656" lon="0.9408468937746686"><ele>366.33333333333337</ele><time>2026-04-01T14:29:05Z</time></trkpt><trkpt lat="43.10491202870715" lon="0.941110608012925"><ele>367.6666666666667</ele><time>2026-04-01T14:29:06Z</time></trkpt><trkpt lat="43.10489177695371" lon="0.9413811297934059"><ele>369.0</ele><time>2026-04-01T14:29:07Z</time></trkpt><trkpt lat="43.104863493712735" lon="0.9416472686396358"><ele>367.6666666666667</ele><time>2026-04-01T14:29:08Z</time></trkpt><trkpt lat="43.10479480128706" lon="0.9419090663438667"><ele>366.33333333333337</ele><time>2026-04-01T14:29:09Z</time></trkpt><trkpt lat="43.1046944463857" lon="0.9421650307250639"><ele>365.0</ele><time>2026-04-01T14:29:10Z</time></trkpt><trkpt lat="43.104575400580345" lon="0.9424124431042911"><ele>362.6666666666667</ele><time>2026-04-01T14:29:11Z</time></trkpt><trkpt lat="43.10443719288993" lon="0.9426415722174529"><ele>360.3333333333333</ele><time>2026-04-01T14:29:12Z</time></trkpt><trkpt lat="43.104275763183885" lon="0.9428457226533498"><ele>358.0</ele><time>2026-04-01T14:29:13Z</time></trkpt><trkpt lat="43.10409454128445" lon="0.9430209958767015"><ele>356.3333333333333</ele><time>2026-04-01T14:29:14Z</time></trkpt><trkpt lat="43.1038993560338" lon="0.9431636599537887"><ele>354.6666666666667</ele><time>2026-04-01T14:29:15Z</time></trkpt><trkpt lat="43.10369205102974" lon="0.9432493337836189"><ele>353.0</ele><time>2026-04-01T14:29:16Z</time></trkpt><trkpt lat="43.103496589369904" lon="0.943321179862328"><ele>350.6666666666667</ele><time>2026-04-01T14:29:17Z</time></trkpt><trkpt lat="43.10331241253659" lon="0.9433950188933266"><ele>348.3333333333333</ele><time>2026-04-01T14:29:18Z</time></trkpt><trkpt lat="43.103139500735296" lon="0.9434554484113794"><ele>346.0</ele><time>2026-04-01T14:29:19Z</time></trkpt><trkpt lat="43.1029850245124" lon="0.9435749656294425"><ele>346.0</ele><time>2026-04-01T14:29:20Z</time></trkpt><trkpt lat="43.10283223118516" lon="0.9437489697423304"><ele>346.0</ele><time>2026-04-01T14:29:21Z</time></trkpt><trkpt lat="43.10266069427998" lon="0.9438470070425083"><ele>346.0</ele><time>2026-04-01T14:29:22Z</time></trkpt><trkpt lat="43.1025180523587" lon="0.9439718768251923"><ele>346.0</ele><time>2026-04-01T14:29:23Z</time></trkpt><trkpt lat="43.10251472558435" lon="0.9443831487085583"><ele>346.0</ele><time>2026-04-01T14:29:24Z</time></trkpt><trkpt lat="43.10245503642254" lon="0.9446227038093561"><ele>346.0</ele><time>2026-04-01T14:29:25Z</time></trkpt><trkpt lat="43.1024227026814" lon="0.9448786588693583"><ele>346.0</ele><time>2026-04-01T14:29:26Z</time></trkpt><trkpt lat="43.10241653059845" lon="0.9451467674857862"><ele>346.0</ele><time>2026-04-01T14:29:27Z</time></trkpt><trkpt lat="43.10241059554963" lon="0.9454310457586816"><ele>346.3333333333333</ele><time>2026-04-01T14:29:28Z</time></trkpt><trkpt lat="43.10240212338227" lon="0.9457240130184956"><ele>346.6666666666667</ele><time>2026-04-01T14:29:29Z</time></trkpt><trkpt lat="43.10239864696458" lon="0.9460253644406084"><ele>347.0</ele><time>2026-04-01T14:29:30Z</time></trkpt><trkpt lat="43.10239439848638" lon="0.9463267882189611"><ele>348.0</ele><time>2026-04-01T14:29:31Z</time></trkpt><trkpt lat="43.1023890178225" lon="0.9466306832071465"><ele>349.0</ele><time>2026-04-01T14:29:32Z</time></trkpt><trkpt lat="43.10238384644645" lon="0.9469338804650052"><ele>350.0</ele><time>2026-04-01T14:29:33Z</time></trkpt><trkpt lat="43.102379016904706" lon="0.947230325806524"><ele>350.33333333333337</ele><time>2026-04-01T14:29:34Z</time></trkpt><trkpt lat="43.10237472508125" lon="0.947517056763315"><ele>350.6666666666667</ele><time>2026-04-01T14:29:35Z</time></trkpt><trkpt lat="43.102371293170904" lon="0.9477930495516746"><ele>351.0</ele><time>2026-04-01T14:29:36Z</time></trkpt><trkpt lat="43.10236734958199" lon="0.9480623325633958"><ele>350.3333333333333</ele><time>2026-04-01T14:29:37Z</time></trkpt><trkpt lat="43.10236155727133" lon="0.948318578285254"><ele>349.66666666666663</ele><time>2026-04-01T14:29:38Z</time></trkpt><trkpt lat="43.10235024806614" lon="0.9485653533471348"><ele>349.0</ele><time>2026-04-01T14:29:39Z</time></trkpt><trkpt lat="43.10233085104409" lon="0.9488013001540866"><ele>346.3333333333333</ele><time>2026-04-01T14:29:40Z</time></trkpt><trkpt lat="43.10229680760561" lon="0.9490162583834072"><ele>343.6666666666667</ele><time>2026-04-01T14:29:41Z</time></trkpt><trkpt lat="43.102238061918676" lon="0.9492178430274191"><ele>341.0</ele><time>2026-04-01T14:29:42Z</time></trkpt><trkpt lat="43.10214734556515" lon="0.9494152133177172"><ele>338.33333333333337</ele><time>2026-04-01T14:29:43Z</time></trkpt><trkpt lat="43.10202945551933" lon="0.9495953821158789"><ele>335.6666666666667</ele><time>2026-04-01T14:29:44Z</time></trkpt><trkpt lat="43.101890969613414" lon="0.9497473916113502"><ele>333.0</ele><time>2026-04-01T14:29:45Z</time></trkpt><trkpt lat="43.101725119521994" lon="0.9498812390900768"><ele>332.6666666666667</ele><time>2026-04-01T14:29:46Z</time></trkpt><trkpt lat="43.101540816904844" lon="0.9499877797394883"><ele>332.33333333333337</ele><time>2026-04-01T14:29:47Z</time></trkpt><trkpt lat="43.10135031830026" lon="0.9500701823223617"><ele>332.0</ele><time>2026-04-01T14:29:48Z</time></trkpt><trkpt lat="43.101147202203876" lon="0.9501445134986484"><ele>328.33333333333337</ele><time>2026-04-01T14:29:49Z</time></trkpt><trkpt lat="43.100931855615904" lon="0.9502271919119842"><ele>324.6666666666667</ele><time>2026-04-01T14:29:50Z</time></trkpt><trkpt lat="43.100731779006885" lon="0.9503098880003985"><ele>321.0</ele><time>2026-04-01T14:29:51Z</time></trkpt><trkpt lat="43.100545201815365" lon="0.9503894877038135"><ele>321.0</ele><time>2026-04-01T14:29:52Z</time></trkpt><trkpt lat="43.100369270486716" lon="0.9504623446458883"><ele>321.0</ele><time>2026-04-01T14:29:53Z</time></trkpt><trkpt lat="43.10020456438298" lon="0.9505282190519172"><ele>321.0</ele><time>2026-04-01T14:29:54Z</time></trkpt><trkpt lat="43.100044534360016" lon="0.9505881597285613"><ele>323.25</ele><time>2026-04-01T14:29:55Z</time></trkpt><trkpt lat="43.09989997489774" lon="0.950651588720171"><ele>325.5</ele><time>2026-04-01T14:29:56Z</time></trkpt><trkpt lat="43.099769690433455" lon="0.9507392850207477"><ele>327.75</ele><time>2026-04-01T14:29:57Z</time></trkpt><trkpt lat="43.09966418508781" lon="0.9508604142642884"><ele>330.0</ele><time>2026-04-01T14:29:58Z</time></trkpt><trkpt lat="43.09958833517191" lon="0.9510037072810498"><ele>331.0</ele><time>2026-04-01T14:29:59Z</time></trkpt><trkpt lat="43.099538647677186" lon="0.9511514910340859"><ele>332.0</ele><time>2026-04-01T14:30:00Z</time></trkpt><trkpt lat="43.099518237752896" lon="0.9512973306287145"><ele>333.0</ele><time>2026-04-01T14:30:01Z</time></trkpt><trkpt lat="43.09951924922278" lon="0.9514366501796365"><ele>334.0</ele><time>2026-04-01T14:30:02Z</time></trkpt><trkpt lat="43.0995135781086" lon="0.9515619407889251"><ele>335.0</ele><time>2026-04-01T14:30:03Z</time></trkpt><trkpt lat="43.09950410410631" lon="0.9516825669444"><ele>334.2</ele><time>2026-04-01T14:30:04Z</time></trkpt><trkpt lat="43.099494829725046" lon="0.9518038219762065"><ele>333.4</ele><time>2026-04-01T14:30:05Z</time></trkpt><trkpt lat="43.09948133355914" lon="0.9519345885645906"><ele>332.6</ele><time>2026-04-01T14:30:06Z</time></trkpt><trkpt lat="43.09945738822347" lon="0.952058889162501"><ele>331.8</ele><time>2026-04-01T14:30:07Z</time></trkpt><trkpt lat="43.09943031519635" lon="0.9521743592607071"><ele>331.0</ele><time>2026-04-01T14:30:08Z</time></trkpt><trkpt lat="43.09940184998045" lon="0.9522811162487269"><ele>331.0</ele><time>2026-04-01T14:30:09Z</time></trkpt><trkpt lat="43.099369395349775" lon="0.9523772247513983"><ele>331.0</ele><time>2026-04-01T14:30:10Z</time></trkpt><trkpt lat="43.09932600273743" lon="0.9524840857973637"><ele>331.0</ele><time>2026-04-01T14:30:11Z</time></trkpt><trkpt lat="43.099273478539686" lon="0.952589536437521"><ele>331.0</ele><time>2026-04-01T14:30:12Z</time></trkpt><trkpt lat="43.099216479870016" lon="0.9526816040461197"><ele>331.0</ele><time>2026-04-01T14:30:13Z</time></trkpt><trkpt lat="43.099164182308265" lon="0.9527582647093833"><ele>331.0</ele><time>2026-04-01T14:30:14Z</time></trkpt><trkpt lat="43.099112770500746" lon="0.9528301948182022"><ele>330.4</ele><time>2026-04-01T14:30:15Z</time></trkpt><trkpt lat="43.09904619101508" lon="0.9529372805283687"><ele>329.8</ele><time>2026-04-01T14:30:17Z</time></trkpt><trkpt lat="43.0991131074296" lon="0.9529575276570201"><ele>329.2</ele><time>2026-04-01T14:30:21Z</time></trkpt><trkpt lat="43.09916235855272" lon="0.952894955079855"><ele>328.59999999999997</ele><time>2026-04-01T14:30:22Z</time></trkpt><trkpt lat="43.09921718017999" lon="0.9527617484874217"><ele>328.0</ele><time>2026-04-01T14:30:23Z</time></trkpt><trkpt lat="43.09929078741086" lon="0.9526422333245393"><ele>329.0</ele><time>2026-04-01T14:30:24Z</time></trkpt><trkpt lat="43.099374061926575" lon="0.9524767135095988"><ele>330.0</ele><time>2026-04-01T14:30:25Z</time></trkpt><trkpt lat="43.0994507474825" lon="0.9522744174807433"><ele>331.0</ele><time>2026-04-01T14:30:26Z</time></trkpt><trkpt lat="43.099500884169636" lon="0.9520767942570485"><ele>331.0</ele><time>2026-04-01T14:30:27Z</time></trkpt><trkpt lat="43.099530470177655" lon="0.9518737196695891"><ele>331.0</ele><time>2026-04-01T14:30:28Z</time></trkpt><trkpt lat="43.0995469941506" lon="0.9516815780545816"><ele>331.0</ele><time>2026-04-01T14:30:29Z</time></trkpt><trkpt lat="43.0995555876057" lon="0.9515207492376498"><ele>331.0</ele><time>2026-04-01T14:30:30Z</time></trkpt><trkpt lat="43.099563215621046" lon="0.9513926198392645"><ele>331.0</ele><time>2026-04-01T14:30:31Z</time></trkpt><trkpt lat="43.09957898934009" lon="0.9513030130248809"><ele>331.0</ele><time>2026-04-01T14:30:32Z</time></trkpt><trkpt lat="43.099648783884874" lon="0.9512366127161029"><ele>331.0</ele><time>2026-04-01T14:30:34Z</time></trkpt><trkpt lat="43.09969594571969" lon="0.9513257236307634"><ele>331.0</ele><time>2026-04-01T14:30:36Z</time></trkpt><trkpt lat="43.099717060055745" lon="0.9514492213614797"><ele>331.0</ele><time>2026-04-01T14:30:37Z</time></trkpt><trkpt lat="43.099756916895906" lon="0.9516057439521386"><ele>331.0</ele><time>2026-04-01T14:30:38Z</time></trkpt><trkpt lat="43.09981489470052" lon="0.9517783820754808"><ele>331.0</ele><time>2026-04-01T14:30:39Z</time></trkpt><trkpt lat="43.099866118980074" lon="0.9519599444641679"><ele>331.0</ele><time>2026-04-01T14:30:40Z</time></trkpt><trkpt lat="43.09992003937623" lon="0.9521268847007268"><ele>331.0</ele><time>2026-04-01T14:30:41Z</time></trkpt><trkpt lat="43.099987409544376" lon="0.9522866779922572"><ele>331.0</ele><time>2026-04-01T14:30:42Z</time></trkpt><trkpt lat="43.10006210075917" lon="0.9524422745497307"><ele>326.5</ele><time>2026-04-01T14:30:43Z</time></trkpt><trkpt lat="43.10013479109381" lon="0.9525885761510108"><ele>322.0</ele><time>2026-04-01T14:30:44Z</time></trkpt><trkpt lat="43.100210161389384" lon="0.9527237918969684"><ele>317.5</ele><time>2026-04-01T14:30:45Z</time></trkpt><trkpt lat="43.10027786746689" lon="0.952858582961503"><ele>313.0</ele><time>2026-04-01T14:30:46Z</time></trkpt><trkpt lat="43.10033867350416" lon="0.9529937802009143"><ele>313.0</ele><time>2026-04-01T14:30:47Z</time></trkpt><trkpt lat="43.10039640620989" lon="0.9531246058704116"><ele>313.0</ele><time>2026-04-01T14:30:48Z</time></trkpt><trkpt lat="43.1004550233123" lon="0.9532459181178289"><ele>313.0</ele><time>2026-04-01T14:30:49Z</time></trkpt><trkpt lat="43.1005117357484" lon="0.9533647757881207"><ele>313.0</ele><time>2026-04-01T14:30:50Z</time></trkpt><trkpt lat="43.100579214245855" lon="0.9534921912834152"><ele>313.0</ele><time>2026-04-01T14:30:51Z</time></trkpt><trkpt lat="43.10066017662362" lon="0.9536090402249253"><ele>313.0</ele><time>2026-04-01T14:30:52Z</time></trkpt><trkpt lat="43.10073664816718" lon="0.9537176147642836"><ele>313.0</ele><time>2026-04-01T14:30:53Z</time></trkpt><trkpt lat="43.10079797739743" lon="0.9538294457070738"><ele>313.0</ele><time>2026-04-01T14:30:54Z</time></trkpt><trkpt lat="43.10084764591141" lon="0.9539541238722444"><ele>313.0</ele><time>2026-04-01T14:30:55Z</time></trkpt><trkpt lat="43.10088683480839" lon="0.9541089429419338"><ele>313.0</ele><time>2026-04-01T14:30:56Z</time></trkpt><trkpt lat="43.10090539370842" lon="0.9542663669113906"><ele>311.0</ele><time>2026-04-01T14:30:57Z</time></trkpt><trkpt lat="43.100912764420634" lon="0.9543917950816742"><ele>309.0</ele><time>2026-04-01T14:30:58Z</time></trkpt><trkpt lat="43.10092105853017" lon="0.9544837230694763"><ele>307.0</ele><time>2026-04-01T14:31:01Z</time></trkpt><trkpt lat="43.1009375029385" lon="0.9546315768275148"><ele>305.0</ele><time>2026-04-01T14:31:03Z</time></trkpt><trkpt lat="43.10094866911943" lon="0.954744174872803"><ele>303.0</ele><time>2026-04-01T14:31:04Z</time></trkpt><trkpt lat="43.100965066802054" lon="0.9548717756294185"><ele>301.0</ele><time>2026-04-01T14:31:05Z</time></trkpt><trkpt lat="43.100979495762" lon="0.9550105842095317"><ele>300.5</ele><time>2026-04-01T14:31:06Z</time></trkpt><trkpt lat="43.100991617463215" lon="0.9551454220733488"><ele>300.0</ele><time>2026-04-01T14:31:07Z</time></trkpt><trkpt lat="43.10100534997953" lon="0.9552799300714522"><ele>299.5</ele><time>2026-04-01T14:31:08Z</time></trkpt><trkpt lat="43.101021255578615" lon="0.955429101196755"><ele>299.0</ele><time>2026-04-01T14:31:09Z</time></trkpt><trkpt lat="43.101041974144046" lon="0.9556230226104832"><ele>299.0</ele><time>2026-04-01T14:31:10Z</time></trkpt><trkpt lat="43.10106448001256" lon="0.955833026982019"><ele>299.0</ele><time>2026-04-01T14:31:11Z</time></trkpt><trkpt lat="43.101086699872006" lon="0.9560232328340964"><ele>299.0</ele><time>2026-04-01T14:31:12Z</time></trkpt><trkpt lat="43.10110563654465" lon="0.9561948495039915"><ele>299.0</ele><time>2026-04-01T14:31:13Z</time></trkpt><trkpt lat="43.1011204207078" lon="0.9563606983468215"><ele>298.8</ele><time>2026-04-01T14:31:14Z</time></trkpt><trkpt lat="43.10113210586151" lon="0.9565197969023457"><ele>298.59999999999997</ele><time>2026-04-01T14:31:15Z</time></trkpt><trkpt lat="43.10113980318975" lon="0.9566713215996743"><ele>298.4</ele><time>2026-04-01T14:31:16Z</time></trkpt><trkpt lat="43.10114558223988" lon="0.9568163927317141"><ele>298.2</ele><time>2026-04-01T14:31:17Z</time></trkpt><trkpt lat="43.10114789169672" lon="0.9569543608453908"><ele>298.0</ele><time>2026-04-01T14:31:18Z</time></trkpt><trkpt lat="43.10114174930058" lon="0.9570797942345552"><ele>297.66666666666663</ele><time>2026-04-01T14:31:19Z</time></trkpt><trkpt lat="43.101126402544594" lon="0.9571917845367943"><ele>297.3333333333333</ele><time>2026-04-01T14:31:20Z</time></trkpt><trkpt lat="43.101101867259075" lon="0.9572913113758245"><ele>297.0</ele><time>2026-04-01T14:31:21Z</time></trkpt><trkpt lat="43.101072148233584" lon="0.9573718265396408"><ele>296.6666666666667</ele><time>2026-04-01T14:31:22Z</time></trkpt><trkpt lat="43.10101395204823" lon="0.9575145972938427"><ele>296.33333333333337</ele><time>2026-04-01T14:31:24Z</time></trkpt><trkpt lat="43.100962439878955" lon="0.9575853045707711"><ele>296.0</ele><time>2026-04-01T14:31:25Z</time></trkpt><trkpt lat="43.100909136173854" lon="0.9576631597441198"><ele>295.8571428571429</ele><time>2026-04-01T14:31:26Z</time></trkpt><trkpt lat="43.100876484027616" lon="0.957755988068933"><ele>295.7142857142857</ele><time>2026-04-01T14:31:27Z</time></trkpt><trkpt lat="43.100867539301696" lon="0.9578470780359963"><ele>295.57142857142856</ele><time>2026-04-01T14:31:28Z</time></trkpt><trkpt lat="43.10089417980281" lon="0.9579255795531256"><ele>295.42857142857144</ele><time>2026-04-01T14:31:29Z</time></trkpt><trkpt lat="43.10094618037108" lon="0.9579813642636344"><ele>295.2857142857143</ele><time>2026-04-01T14:31:30Z</time></trkpt><trkpt lat="43.10101844262078" lon="0.9580041338033967"><ele>295.14285714285717</ele><time>2026-04-01T14:31:31Z</time></trkpt><trkpt lat="43.10109455047828" lon="0.9579760978112577"><ele>295.0</ele><time>2026-04-01T14:31:32Z</time></trkpt><trkpt lat="43.10115407119878" lon="0.9579115931903047"><ele>295.0</ele><time>2026-04-01T14:31:33Z</time></trkpt><trkpt lat="43.10118199270993" lon="0.957801998096359"><ele>295.0</ele><time>2026-04-01T14:31:34Z</time></trkpt><trkpt lat="43.10128743389665" lon="0.9577477651326884"><ele>295.0</ele><time>2026-04-01T14:31:35Z</time></trkpt><trkpt lat="43.10138621333664" lon="0.9577176508608534"><ele>295.0</ele><time>2026-04-01T14:31:36Z</time></trkpt><trkpt lat="43.101501400005276" lon="0.9576892735324887"><ele>295.0</ele><time>2026-04-01T14:31:37Z</time></trkpt><trkpt lat="43.10162151435501" lon="0.9576560428068442"><ele>295.2</ele><time>2026-04-01T14:31:38Z</time></trkpt><trkpt lat="43.10172674155049" lon="0.9576675922419491"><ele>295.4</ele><time>2026-04-01T14:31:39Z</time></trkpt><trkpt lat="43.10183162408955" lon="0.9577162451013502"><ele>295.6</ele><time>2026-04-01T14:31:40Z</time></trkpt><trkpt lat="43.10192468920023" lon="0.9577866386231128"><ele>295.8</ele><time>2026-04-01T14:31:41Z</time></trkpt><trkpt lat="43.102010181782106" lon="0.9578475004014728"><ele>296.0</ele><time>2026-04-01T14:31:42Z</time></trkpt><trkpt lat="43.102090018328454" lon="0.9579003426058695"><ele>296.0</ele><time>2026-04-01T14:31:43Z</time></trkpt><trkpt lat="43.102168173602145" lon="0.9579474219804595"><ele>296.0</ele><time>2026-04-01T14:31:44Z</time></trkpt><trkpt lat="43.102243929907196" lon="0.9579916453792563"><ele>296.0</ele><time>2026-04-01T14:31:45Z</time></trkpt><trkpt lat="43.10232430039739" lon="0.9580430827994353"><ele>296.0</ele><time>2026-04-01T14:31:46Z</time></trkpt><trkpt lat="43.10240562107599" lon="0.9581032327515953"><ele>296.0</ele><time>2026-04-01T14:31:47Z</time></trkpt><trkpt lat="43.10248866402883" lon="0.9581688747268713"><ele>296.0</ele><time>2026-04-01T14:31:48Z</time></trkpt><trkpt lat="43.102571879493254" lon="0.9582342435894218"><ele>296.0</ele><time>2026-04-01T14:31:49Z</time></trkpt><trkpt lat="43.102645940418306" lon="0.9582926410781"><ele>296.0</ele><time>2026-04-01T14:31:50Z</time></trkpt><trkpt lat="43.1027141712471" lon="0.958344569537296"><ele>296.0</ele><time>2026-04-01T14:31:51Z</time></trkpt><trkpt lat="43.10277582614175" lon="0.958397185617948"><ele>296.0</ele><time>2026-04-01T14:31:52Z</time></trkpt><trkpt lat="43.10283161083723" lon="0.9584506835393082"><ele>296.0</ele><time>2026-04-01T14:31:53Z</time></trkpt><trkpt lat="43.102879480869724" lon="0.9585068205163229"><ele>296.0</ele><time>2026-04-01T14:31:54Z</time></trkpt><trkpt lat="43.102969725161074" lon="0.9586008665396432"><ele>295.8</ele><time>2026-04-01T14:31:56Z</time></trkpt><trkpt lat="43.1030366338422" lon="0.9587111044241657"><ele>295.6</ele><time>2026-04-01T14:31:58Z</time></trkpt><trkpt lat="43.103098473078475" lon="0.9588204046224544"><ele>295.4</ele><time>2026-04-01T14:32:00Z</time></trkpt><trkpt lat="43.10314326962894" lon="0.9589531220055033"><ele>295.2</ele><time>2026-04-01T14:32:02Z</time></trkpt><trkpt lat="43.10314938800924" lon="0.9590966727979213"><ele>295.0</ele><time>2026-04-01T14:32:04Z</time></trkpt><trkpt lat="43.103141269439554" lon="0.9592238189266991"><ele>295.0</ele><time>2026-04-01T14:32:06Z</time></trkpt><trkpt lat="43.1031298306062" lon="0.9593168307654625"><ele>295.0</ele><time>2026-04-01T14:32:08Z</time></trkpt><trkpt lat="43.10310465574889" lon="0.9594146677037474"><ele>295.0</ele><time>2026-04-01T14:32:11Z</time></trkpt><trkpt lat="43.10312471831396" lon="0.9595049160156953"><ele>295.0</ele><time>2026-04-01T14:32:15Z</time></trkpt><trkpt lat="43.103140096832725" lon="0.9594181930340204"><ele>295.0</ele><time>2026-04-01T14:32:27Z</time></trkpt><trkpt lat="43.10315444137752" lon="0.959218848167442"><ele>295.0</ele><time>2026-04-01T14:32:29Z</time></trkpt><trkpt lat="43.10315372257309" lon="0.9590965948761323"><ele>295.00000000000006</ele><time>2026-04-01T14:32:31Z</time></trkpt><trkpt lat="43.10315351937484" lon="0.9590044910547133"><ele>295.0</ele><time>2026-04-01T14:32:33Z</time></trkpt><trkpt lat="43.103154880227976" lon="0.9589145404182613"><ele>295.0</ele><time>2026-04-01T14:32:36Z</time></trkpt><trkpt lat="43.10321416597271" lon="0.9588751184886127"><ele>295.0</ele><time>2026-04-01T14:33:03Z</time></trkpt><trkpt lat="43.10326284424055" lon="0.958818850269315"><ele>295.0</ele><time>2026-04-01T14:33:13Z</time></trkpt><trkpt lat="43.10320080431668" lon="0.9588003826720807"><ele>295.00000000000006</ele><time>2026-04-01T14:34:24Z</time></trkpt><trkpt lat="43.10315263787741" lon="0.9588622569004255"><ele>295.0</ele><time>2026-04-01T14:34:32Z</time></trkpt><trkpt lat="43.10311746999875" lon="0.9589526741306502"><ele>295.0</ele><time>2026-04-01T14:34:37Z</time></trkpt><trkpt lat="43.10317748222109" lon="0.9588430615952497"><ele>295.0</ele><time>2026-04-01T14:35:36Z</time></trkpt></trkseg><trkseg><trkpt lat="43.103173808136034" lon="0.9588782089481679"><ele>295.0</ele><time>2026-04-01T14:59:54Z</time></trkpt><trkpt lat="43.10324951805143" lon="0.9588430532604068"><ele>295.0</ele><time>2026-04-01T15:01:09Z</time></trkpt><trkpt lat="43.103283587400064" lon="0.9587620265380914"><ele>295.0</ele><time>2026-04-01T15:01:12Z</time></trkpt><trkpt lat="43.10333617529542" lon="0.9586656229641307"><ele>295.0</ele><time>2026-04-01T15:01:15Z</time></trkpt><trkpt lat="43.103310524181495" lon="0.9585673768449675"><ele>295.0</ele><time>2026-04-01T15:01:22Z</time></trkpt><trkpt lat="43.10329308580907" lon="0.9586630590574703"><ele>295.0</ele><time>2026-04-01T15:02:30Z</time></trkpt><trkpt lat="43.10323855521666" lon="0.9587480972607108"><ele>295.0</ele><time>2026-04-01T15:02:32Z</time></trkpt><trkpt lat="43.10322688734721" lon="0.9588454084535626"><ele>295.0</ele><time>2026-04-01T15:03:10Z</time></trkpt><trkpt lat="43.10324197376268" lon="0.9587506029002005"><ele>295.0</ele><time>2026-04-01T15:03:20Z</time></trkpt><trkpt lat="43.10318557226853" lon="0.958827186800904"><ele>295.0</ele><time>2026-04-01T15:03:30Z</time></trkpt><trkpt lat="43.1032475169699" lon="0.9588599890954314"><ele>295.0</ele><time>2026-04-01T15:04:10Z</time></trkpt><trkpt lat="43.10328673584242" lon="0.9587053478242775"><ele>295.0</ele><time>2026-04-01T15:05:24Z</time></trkpt><trkpt lat="43.10322905985593" lon="0.9588514487167399"><ele>295.0</ele><time>2026-04-01T15:06:18Z</time></trkpt><trkpt lat="43.103249305690724" lon="0.9589504117197329"><ele>295.0</ele><time>2026-04-01T15:07:29Z</time></trkpt><trkpt lat="43.10320382931374" lon="0.9590205066233718"><ele>295.0</ele><time>2026-04-01T15:07:33Z</time></trkpt><trkpt lat="43.10314397547054" lon="0.9590863336925737"><ele>295.0</ele><time>2026-04-01T15:07:39Z</time></trkpt><trkpt lat="43.10314256537914" lon="0.9592015433784095"><ele>295.0</ele><time>2026-04-01T15:07:41Z</time></trkpt><trkpt lat="43.10314790691635" lon="0.9593438082269367"><ele>295.0</ele><time>2026-04-01T15:07:43Z</time></trkpt><trkpt lat="43.103176853591066" lon="0.9594744112074245"><ele>295.0</ele><time>2026-04-01T15:07:45Z</time></trkpt><trkpt lat="43.10324561128102" lon="0.9596164352099404"><ele>295.0</ele><time>2026-04-01T15:07:47Z</time></trkpt><trkpt lat="43.103298323934126" lon="0.9596843881252257"><ele>295.0</ele><time>2026-04-01T15:07:48Z</time></trkpt><trkpt lat="43.10336320627718" lon="0.959741369255771"><ele>295.0</ele><time>2026-04-01T15:07:49Z</time></trkpt><trkpt lat="43.1034248332434" lon="0.9597949225828141"><ele>295.0</ele><time>2026-04-01T15:07:50Z</time></trkpt><trkpt lat="43.10347958245728" lon="0.9598397844568584"><ele>295.0</ele><time>2026-04-01T15:07:51Z</time></trkpt><trkpt lat="43.10358048061674" lon="0.9599278449404585"><ele>294.8333333333333</ele><time>2026-04-01T15:07:53Z</time></trkpt><trkpt lat="43.103636614362934" lon="0.9599721312586932"><ele>294.66666666666663</ele><time>2026-04-01T15:07:54Z</time></trkpt><trkpt lat="43.103694063400795" lon="0.9600278613369502"><ele>294.5</ele><time>2026-04-01T15:07:55Z</time></trkpt><trkpt lat="43.10375012077935" lon="0.9600752119304384"><ele>294.3333333333333</ele><time>2026-04-01T15:07:56Z</time></trkpt><trkpt lat="43.10380605124022" lon="0.9601190428615818"><ele>294.1666666666667</ele><time>2026-04-01T15:07:57Z</time></trkpt><trkpt lat="43.10387295572879" lon="0.9601890936129717"><ele>294.0</ele><time>2026-04-01T15:07:58Z</time></trkpt><trkpt lat="43.10395704707213" lon="0.960262837624355"><ele>293.8333333333333</ele><time>2026-04-01T15:07:59Z</time></trkpt><trkpt lat="43.10404695052124" lon="0.9603416786128058"><ele>293.6666666666667</ele><time>2026-04-01T15:08:00Z</time></trkpt><trkpt lat="43.10412901177253" lon="0.960388348346559"><ele>293.5</ele><time>2026-04-01T15:08:01Z</time></trkpt><trkpt lat="43.104187168382126" lon="0.9604524619781931"><ele>293.33333333333337</ele><time>2026-04-01T15:08:02Z</time></trkpt><trkpt lat="43.10424729487265" lon="0.9605214809346447"><ele>293.1666666666667</ele><time>2026-04-01T15:08:03Z</time></trkpt><trkpt lat="43.104303698577525" lon="0.9605902007569806"><ele>293.0</ele><time>2026-04-01T15:08:04Z</time></trkpt><trkpt lat="43.10435664981838" lon="0.9606624691029978"><ele>293.5</ele><time>2026-04-01T15:08:05Z</time></trkpt><trkpt lat="43.10440418240756" lon="0.9608051608973585"><ele>294.0</ele><time>2026-04-01T15:08:07Z</time></trkpt><trkpt lat="43.104462090646784" lon="0.9609272828559875"><ele>294.5</ele><time>2026-04-01T15:08:09Z</time></trkpt><trkpt lat="43.10450259815855" lon="0.9610633572382836"><ele>295.0</ele><time>2026-04-01T15:08:11Z</time></trkpt><trkpt lat="43.1045603751094" lon="0.9612192243245642"><ele>295.0</ele><time>2026-04-01T15:08:13Z</time></trkpt><trkpt lat="43.104597440259376" lon="0.961327903025554"><ele>295.0</ele><time>2026-04-01T15:08:14Z</time></trkpt><trkpt lat="43.10463492501985" lon="0.961445837666378"><ele>295.0</ele><time>2026-04-01T15:08:15Z</time></trkpt><trkpt lat="43.104680775376906" lon="0.9615872876742276"><ele>295.0</ele><time>2026-04-01T15:08:16Z</time></trkpt><trkpt lat="43.10472727087938" lon="0.9617259952623448"><ele>295.0</ele><time>2026-04-01T15:08:17Z</time></trkpt><trkpt lat="43.10477662804471" lon="0.9618609667312331"><ele>294.8333333333333</ele><time>2026-04-01T15:08:18Z</time></trkpt><trkpt lat="43.10482151848075" lon="0.9619929913911726"><ele>294.66666666666663</ele><time>2026-04-01T15:08:19Z</time></trkpt><trkpt lat="43.104860671373345" lon="0.9621146889106942"><ele>294.5</ele><time>2026-04-01T15:08:20Z</time></trkpt><trkpt lat="43.10489205350059" lon="0.962234341485462"><ele>294.3333333333333</ele><time>2026-04-01T15:08:21Z</time></trkpt><trkpt lat="43.104915615994635" lon="0.962349181862907"><ele>294.1666666666667</ele><time>2026-04-01T15:08:22Z</time></trkpt><trkpt lat="43.104910896736456" lon="0.9624386650550599"><ele>294.0</ele><time>2026-04-01T15:08:23Z</time></trkpt><trkpt lat="43.10490285699348" lon="0.9625275395998172"><ele>293.59999999999997</ele><time>2026-04-01T15:08:26Z</time></trkpt><trkpt lat="43.1050408056712" lon="0.9625545562775092"><ele>293.2</ele><time>2026-04-01T15:08:29Z</time></trkpt><trkpt lat="43.10512077857994" lon="0.9625647496574592"><ele>292.79999999999995</ele><time>2026-04-01T15:08:30Z</time></trkpt><trkpt lat="43.10521969268408" lon="0.9625699623007095"><ele>292.4</ele><time>2026-04-01T15:08:31Z</time></trkpt><trkpt lat="43.105315291629466" lon="0.9625747113510419"><ele>292.0</ele><time>2026-04-01T15:08:32Z</time></trkpt><trkpt lat="43.10542667919815" lon="0.962584443088206"><ele>292.0</ele><time>2026-04-01T15:08:33Z</time></trkpt><trkpt lat="43.10554124380691" lon="0.9625957526069898"><ele>292.0</ele><time>2026-04-01T15:08:34Z</time></trkpt><trkpt lat="43.1056534456068" lon="0.9626054939902701"><ele>292.0</ele><time>2026-04-01T15:08:35Z</time></trkpt><trkpt lat="43.105768097509156" lon="0.9626088664498315"><ele>292.0</ele><time>2026-04-01T15:08:36Z</time></trkpt><trkpt lat="43.105897128651605" lon="0.9625958319234957"><ele>292.4</ele><time>2026-04-01T15:08:37Z</time></trkpt><trkpt lat="43.106024222513255" lon="0.962573127107515"><ele>292.79999999999995</ele><time>2026-04-01T15:08:38Z</time></trkpt><trkpt lat="43.10613439966325" lon="0.9625464795848552"><ele>293.2</ele><time>2026-04-01T15:08:39Z</time></trkpt><trkpt lat="43.10623210142766" lon="0.9625262726538134"><ele>293.59999999999997</ele><time>2026-04-01T15:08:40Z</time></trkpt><trkpt lat="43.10631435027281" lon="0.9625156661652969"><ele>294.0</ele><time>2026-04-01T15:08:41Z</time></trkpt><trkpt lat="43.10638392364494" lon="0.9625220223056151"><ele>294.0</ele><time>2026-04-01T15:08:42Z</time></trkpt><trkpt lat="43.106443572404615" lon="0.9625552997468959"><ele>294.0</ele><time>2026-04-01T15:08:43Z</time></trkpt><trkpt lat="43.10649197075454" lon="0.9626231205291335"><ele>294.0</ele><time>2026-04-01T15:08:44Z</time></trkpt><trkpt lat="43.10653288548848" lon="0.962712376029046"><ele>294.0</ele><time>2026-04-01T15:08:45Z</time></trkpt><trkpt lat="43.106548865225705" lon="0.962807398453691"><ele>294.0</ele><time>2026-04-01T15:08:46Z</time></trkpt><trkpt lat="43.10655129793951" lon="0.962899045712042"><ele>294.0</ele><time>2026-04-01T15:08:47Z</time></trkpt><trkpt lat="43.10654449904222" lon="0.9629910251238105"><ele>294.0</ele><time>2026-04-01T15:08:48Z</time></trkpt><trkpt lat="43.10653885300181" lon="0.9631057478402123"><ele>294.0</ele><time>2026-04-01T15:08:49Z</time></trkpt><trkpt lat="43.106530972995664" lon="0.9632345589060102"><ele>294.0</ele><time>2026-04-01T15:08:50Z</time></trkpt><trkpt lat="43.10652417317541" lon="0.963371680211434"><ele>294.0</ele><time>2026-04-01T15:08:51Z</time></trkpt><trkpt lat="43.10651759211949" lon="0.9635060826911996"><ele>294.0</ele><time>2026-04-01T15:08:52Z</time></trkpt><trkpt lat="43.106507562435866" lon="0.9636421260207161"><ele>294.0</ele><time>2026-04-01T15:08:53Z</time></trkpt><trkpt lat="43.106509148217526" lon="0.9637784624534407"><ele>294.0</ele><time>2026-04-01T15:08:54Z</time></trkpt><trkpt lat="43.106524877590275" lon="0.9639041508887443"><ele>294.0</ele><time>2026-04-01T15:08:55Z</time></trkpt><trkpt lat="43.106569507557" lon="0.9640225630528525"><ele>294.0</ele><time>2026-04-01T15:08:56Z</time></trkpt><trkpt lat="43.106641285487555" lon="0.9641287539467092"><ele>294.0</ele><time>2026-04-01T15:08:57Z</time></trkpt><trkpt lat="43.10673771127194" lon="0.964217679240873"><ele>294.0</ele><time>2026-04-01T15:08:58Z</time></trkpt><trkpt lat="43.106845981274894" lon="0.9642968628303964"><ele>294.0</ele><time>2026-04-01T15:08:59Z</time></trkpt><trkpt lat="43.10695930610648" lon="0.9643803841527449"><ele>294.0</ele><time>2026-04-01T15:09:00Z</time></trkpt><trkpt lat="43.10707476152249" lon="0.9644716843457053"><ele>294.0</ele><time>2026-04-01T15:09:01Z</time></trkpt><trkpt lat="43.10720198770279" lon="0.9645755659734453"><ele>294.0</ele><time>2026-04-01T15:09:02Z</time></trkpt><trkpt lat="43.107332550069245" lon="0.9646981499932196"><ele>293.6666666666667</ele><time>2026-04-01T15:09:03Z</time></trkpt><trkpt lat="43.10745256183609" lon="0.9648464067067231"><ele>293.33333333333337</ele><time>2026-04-01T15:09:04Z</time></trkpt><trkpt lat="43.10755936757923" lon="0.9650275215282761"><ele>293.0</ele><time>2026-04-01T15:09:05Z</time></trkpt><trkpt lat="43.1076462221058" lon="0.9652299832229736"><ele>293.0</ele><time>2026-04-01T15:09:06Z</time></trkpt><trkpt lat="43.107704781878745" lon="0.965469091830024"><ele>293.0</ele><time>2026-04-01T15:09:07Z</time></trkpt><trkpt lat="43.107785263178684" lon="0.9657145283518926"><ele>293.0</ele><time>2026-04-01T15:09:08Z</time></trkpt><trkpt lat="43.10784618194303" lon="0.9659813229235635"><ele>292.0</ele><time>2026-04-01T15:09:09Z</time></trkpt><trkpt lat="43.10791009250692" lon="0.9662539655592772"><ele>291.0</ele><time>2026-04-01T15:09:10Z</time></trkpt><trkpt lat="43.10797633533146" lon="0.9665242118163978"><ele>290.0</ele><time>2026-04-01T15:09:11Z</time></trkpt><trkpt lat="43.1080430929321" lon="0.9667959057089052"><ele>290.0</ele><time>2026-04-01T15:09:12Z</time></trkpt><trkpt lat="43.1081115055163" lon="0.9670656575940821"><ele>290.0</ele><time>2026-04-01T15:09:13Z</time></trkpt><trkpt lat="43.10817790278235" lon="0.9673281715964049"><ele>290.0</ele><time>2026-04-01T15:09:14Z</time></trkpt><trkpt lat="43.108237130285154" lon="0.9675865492128652"><ele>291.0</ele><time>2026-04-01T15:09:15Z</time></trkpt><trkpt lat="43.108282201147716" lon="0.9678422605607895"><ele>292.0</ele><time>2026-04-01T15:09:16Z</time></trkpt><trkpt lat="43.108311722915886" lon="0.9681019262482786"><ele>293.0</ele><time>2026-04-01T15:09:17Z</time></trkpt><trkpt lat="43.108334559032755" lon="0.9683715081969303"><ele>296.0</ele><time>2026-04-01T15:09:18Z</time></trkpt><trkpt lat="43.10835915117872" lon="0.9686285948866423"><ele>299.0</ele><time>2026-04-01T15:09:19Z</time></trkpt><trkpt lat="43.108399574436646" lon="0.968872898190951"><ele>302.0</ele><time>2026-04-01T15:09:20Z</time></trkpt><trkpt lat="43.10845605106882" lon="0.969104696434392"><ele>307.33333333333337</ele><time>2026-04-01T15:09:21Z</time></trkpt><trkpt lat="43.108526308616355" lon="0.9693317126287233"><ele>312.6666666666667</ele><time>2026-04-01T15:09:22Z</time></trkpt><trkpt lat="43.10860961725008" lon="0.9695416355810236"><ele>318.0</ele><time>2026-04-01T15:09:23Z</time></trkpt><trkpt lat="43.10870479308659" lon="0.9697370682083459"><ele>318.0</ele><time>2026-04-01T15:09:24Z</time></trkpt><trkpt lat="43.10882359475646" lon="0.9698947210761572"><ele>318.0</ele><time>2026-04-01T15:09:25Z</time></trkpt><trkpt lat="43.10896849006548" lon="0.9700106900275399"><ele>318.0</ele><time>2026-04-01T15:09:26Z</time></trkpt><trkpt lat="43.10912737116918" lon="0.9700930674272248"><ele>320.6666666666667</ele><time>2026-04-01T15:09:27Z</time></trkpt><trkpt lat="43.109300001590086" lon="0.9701631442535688"><ele>323.33333333333337</ele><time>2026-04-01T15:09:28Z</time></trkpt><trkpt lat="43.10946351521412" lon="0.9702559857282531"><ele>326.0</ele><time>2026-04-01T15:09:29Z</time></trkpt><trkpt lat="43.10961184700866" lon="0.9703583956076381"><ele>326.0</ele><time>2026-04-01T15:09:30Z</time></trkpt><trkpt lat="43.109740874344716" lon="0.9704644369548572"><ele>326.0</ele><time>2026-04-01T15:09:31Z</time></trkpt><trkpt lat="43.10983724982651" lon="0.9705615622124223"><ele>326.0</ele><time>2026-04-01T15:09:32Z</time></trkpt><trkpt lat="43.10989629375054" lon="0.9706500393280247"><ele>326.0</ele><time>2026-04-01T15:09:33Z</time></trkpt><trkpt lat="43.10991727293758" lon="0.9707398781997029"><ele>326.0</ele><time>2026-04-01T15:09:34Z</time></trkpt><trkpt lat="43.109801235727154" lon="0.9708405996409449"><ele>326.0</ele><time>2026-04-01T15:09:37Z</time></trkpt><trkpt lat="43.109740493092765" lon="0.970779317217734"><ele>326.0</ele><time>2026-04-01T15:09:38Z</time></trkpt><trkpt lat="43.10964753869123" lon="0.9707110075861233"><ele>326.0</ele><time>2026-04-01T15:09:39Z</time></trkpt><trkpt lat="43.10952099825642" lon="0.9706380652439277"><ele>326.0</ele><time>2026-04-01T15:09:40Z</time></trkpt><trkpt lat="43.10938059663208" lon="0.9705153747232741"><ele>326.0</ele><time>2026-04-01T15:09:41Z</time></trkpt><trkpt lat="43.109218921796604" lon="0.9704389336631163"><ele>326.0</ele><time>2026-04-01T15:09:42Z</time></trkpt><trkpt lat="43.10903465459513" lon="0.9703610899621691"><ele>326.0</ele><time>2026-04-01T15:09:43Z</time></trkpt><trkpt lat="43.1088485073197" lon="0.9703000621239992"><ele>328.33333333333337</ele><time>2026-04-01T15:09:44Z</time></trkpt><trkpt lat="43.108693359564086" lon="0.970249515386361"><ele>330.6666666666667</ele><time>2026-04-01T15:09:45Z</time></trkpt><trkpt lat="43.10854456989074" lon="0.9702163217061335"><ele>333.0</ele><time>2026-04-01T15:09:46Z</time></trkpt><trkpt lat="43.1083754765704" lon="0.9702309416973971"><ele>334.3333333333333</ele><time>2026-04-01T15:09:47Z</time></trkpt><trkpt lat="43.108191670874625" lon="0.9702843910218207"><ele>335.66666666666663</ele><time>2026-04-01T15:09:48Z</time></trkpt><trkpt lat="43.108011808163916" lon="0.9703011278237537"><ele>337.0</ele><time>2026-04-01T15:09:49Z</time></trkpt><trkpt lat="43.10786163383455" lon="0.9703504168334819"><ele>337.0</ele><time>2026-04-01T15:09:50Z</time></trkpt><trkpt lat="43.10775157851848" lon="0.9704178139180542"><ele>337.0</ele><time>2026-04-01T15:09:51Z</time></trkpt><trkpt lat="43.10765685579426" lon="0.9704873227772658"><ele>337.0</ele><time>2026-04-01T15:09:52Z</time></trkpt><trkpt lat="43.107594078082876" lon="0.9706279788408622"><ele>337.0</ele><time>2026-04-01T15:09:53Z</time></trkpt><trkpt lat="43.107555344706924" lon="0.9707957492104413"><ele>337.66666666666663</ele><time>2026-04-01T15:09:54Z</time></trkpt><trkpt lat="43.10751882065709" lon="0.9709857725001745"><ele>338.3333333333333</ele><time>2026-04-01T15:09:55Z</time></trkpt><trkpt lat="43.10750498544408" lon="0.9712067178806707"><ele>339.0</ele><time>2026-04-01T15:09:56Z</time></trkpt><trkpt lat="43.10748811893173" lon="0.971450344532909"><ele>339.3333333333333</ele><time>2026-04-01T15:09:57Z</time></trkpt><trkpt lat="43.10745801480757" lon="0.9717125803498146"><ele>339.66666666666663</ele><time>2026-04-01T15:09:58Z</time></trkpt><trkpt lat="43.10742203488107" lon="0.9719965843108861"><ele>340.0</ele><time>2026-04-01T15:09:59Z</time></trkpt><trkpt lat="43.107385722200306" lon="0.9723005314754792"><ele>346.66666666666663</ele><time>2026-04-01T15:10:00Z</time></trkpt><trkpt lat="43.10735169500734" lon="0.9725971908751766"><ele>353.3333333333333</ele><time>2026-04-01T15:10:01Z</time></trkpt><trkpt lat="43.107319352118125" lon="0.9728877305409233"><ele>360.0</ele><time>2026-04-01T15:10:02Z</time></trkpt><trkpt lat="43.107281240480276" lon="0.9731840912139169"><ele>360.6666666666667</ele><time>2026-04-01T15:10:03Z</time></trkpt><trkpt lat="43.10725033256498" lon="0.9734814160125754"><ele>361.33333333333337</ele><time>2026-04-01T15:10:04Z</time></trkpt><trkpt lat="43.10721778941018" lon="0.9737652780132188"><ele>362.0</ele><time>2026-04-01T15:10:05Z</time></trkpt><trkpt lat="43.10718504418307" lon="0.9740405572930515"><ele>362.33333333333337</ele><time>2026-04-01T15:10:06Z</time></trkpt><trkpt lat="43.10716527067315" lon="0.9743146387349092"><ele>362.6666666666667</ele><time>2026-04-01T15:10:07Z</time></trkpt><trkpt lat="43.10716321013753" lon="0.9745877745482007"><ele>363.0</ele><time>2026-04-01T15:10:08Z</time></trkpt><trkpt lat="43.10719236299" lon="0.9748655879509536"><ele>364.3333333333333</ele><time>2026-04-01T15:10:09Z</time></trkpt><trkpt lat="43.10721045971111" lon="0.9751429405501751"><ele>365.66666666666663</ele><time>2026-04-01T15:10:10Z</time></trkpt><trkpt lat="43.1072301598512" lon="0.9754184070775263"><ele>367.0</ele><time>2026-04-01T15:10:11Z</time></trkpt><trkpt lat="43.107248996638965" lon="0.975704888432619"><ele>365.3333333333333</ele><time>2026-04-01T15:10:12Z</time></trkpt><trkpt lat="43.107259018281106" lon="0.9759866289870314"><ele>363.6666666666667</ele><time>2026-04-01T15:10:13Z</time></trkpt><trkpt lat="43.10724701719885" lon="0.9762505327658176"><ele>362.0</ele><time>2026-04-01T15:10:14Z</time></trkpt><trkpt lat="43.10722332047323" lon="0.9765015966106863"><ele>360.0</ele><time>2026-04-01T15:10:15Z</time></trkpt><trkpt lat="43.10721224478821" lon="0.9767391779676929"><ele>358.0</ele><time>2026-04-01T15:10:16Z</time></trkpt><trkpt lat="43.107198666504765" lon="0.9769533276128946"><ele>356.0</ele><time>2026-04-01T15:10:17Z</time></trkpt><trkpt lat="43.107152664821776" lon="0.9771503371160972"><ele>356.0</ele><time>2026-04-01T15:10:18Z</time></trkpt><trkpt lat="43.10704286000937" lon="0.977289647786999"><ele>356.0</ele><time>2026-04-01T15:10:19Z</time></trkpt><trkpt lat="43.10691515742769" lon="0.9773542313689902"><ele>356.0</ele><time>2026-04-01T15:10:20Z</time></trkpt><trkpt lat="43.106792704977195" lon="0.97739720532668"><ele>356.0</ele><time>2026-04-01T15:10:21Z</time></trkpt><trkpt lat="43.106650619778094" lon="0.9774444215992565"><ele>355.33333333333337</ele><time>2026-04-01T15:10:22Z</time></trkpt><trkpt lat="43.10648781586917" lon="0.9774845312104851"><ele>354.6666666666667</ele><time>2026-04-01T15:10:23Z</time></trkpt><trkpt lat="43.10631119557077" lon="0.9774918926578966"><ele>354.0</ele><time>2026-04-01T15:10:24Z</time></trkpt><trkpt lat="43.10615067595268" lon="0.9775483372144835"><ele>354.0</ele><time>2026-04-01T15:10:25Z</time></trkpt><trkpt lat="43.10601093227318" lon="0.9776476187553297"><ele>354.0</ele><time>2026-04-01T15:10:26Z</time></trkpt><trkpt lat="43.10591693774712" lon="0.9778052752973287"><ele>354.0</ele><time>2026-04-01T15:10:27Z</time></trkpt><trkpt lat="43.105860448069514" lon="0.977992148456562"><ele>354.0</ele><time>2026-04-01T15:10:28Z</time></trkpt><trkpt lat="43.1058144074533" lon="0.9782029054562374"><ele>354.0</ele><time>2026-04-01T15:10:29Z</time></trkpt><trkpt lat="43.10578132406848" lon="0.9784184822355276"><ele>354.0</ele><time>2026-04-01T15:10:30Z</time></trkpt><trkpt lat="43.10581284833633" lon="0.9786388463838288"><ele>355.25</ele><time>2026-04-01T15:10:31Z</time></trkpt><trkpt lat="43.10582254844968" lon="0.9788258736863115"><ele>356.5</ele><time>2026-04-01T15:10:32Z</time></trkpt><trkpt lat="43.10579011537844" lon="0.9789815468589832"><ele>357.75</ele><time>2026-04-01T15:10:33Z</time></trkpt><trkpt lat="43.105734451782276" lon="0.9791286072529652"><ele>359.0</ele><time>2026-04-01T15:10:34Z</time></trkpt><trkpt lat="43.1056495220752" lon="0.9792643634727782"><ele>354.6666666666667</ele><time>2026-04-01T15:10:35Z</time></trkpt><trkpt lat="43.10552486223636" lon="0.9794111953649749"><ele>350.3333333333333</ele><time>2026-04-01T15:10:36Z</time></trkpt><trkpt lat="43.10539338185999" lon="0.9795685850653814"><ele>346.0</ele><time>2026-04-01T15:10:37Z</time></trkpt><trkpt lat="43.10523325430329" lon="0.979734678605359"><ele>346.0</ele><time>2026-04-01T15:10:38Z</time></trkpt><trkpt lat="43.105098904839686" lon="0.9799271515795605"><ele>346.0</ele><time>2026-04-01T15:10:39Z</time></trkpt><trkpt lat="43.10495287999287" lon="0.9800687603105924"><ele>346.0</ele><time>2026-04-01T15:10:40Z</time></trkpt><trkpt lat="43.104848814888456" lon="0.9802635386507992"><ele>348.0</ele><time>2026-04-01T15:10:41Z</time></trkpt><trkpt lat="43.10478179904032" lon="0.9804873941607396"><ele>350.0</ele><time>2026-04-01T15:10:42Z</time></trkpt><trkpt lat="43.10475309173051" lon="0.9807152206655967"><ele>352.0</ele><time>2026-04-01T15:10:43Z</time></trkpt><trkpt lat="43.10477171549626" lon="0.9809475114828926"><ele>347.0</ele><time>2026-04-01T15:10:44Z</time></trkpt><trkpt lat="43.10485157766643" lon="0.9811542921543561"><ele>342.0</ele><time>2026-04-01T15:10:45Z</time></trkpt><trkpt lat="43.104936755061395" lon="0.9813242284733312"><ele>337.0</ele><time>2026-04-01T15:10:46Z</time></trkpt><trkpt lat="43.10505182210623" lon="0.9815087753225397"><ele>333.75</ele><time>2026-04-01T15:10:47Z</time></trkpt><trkpt lat="43.10516247202715" lon="0.9816637333829465"><ele>330.5</ele><time>2026-04-01T15:10:48Z</time></trkpt><trkpt lat="43.10527197683754" lon="0.9817737156613989"><ele>327.25</ele><time>2026-04-01T15:10:49Z</time></trkpt><trkpt lat="43.105395034444285" lon="0.9818831147711298"><ele>324.0</ele><time>2026-04-01T15:10:50Z</time></trkpt><trkpt lat="43.10552937215571" lon="0.981941602688078"><ele>321.5</ele><time>2026-04-01T15:10:51Z</time></trkpt><trkpt lat="43.10565336941004" lon="0.9820452811525257"><ele>319.0</ele><time>2026-04-01T15:10:52Z</time></trkpt><trkpt lat="43.10576310056599" lon="0.9821793707036057"><ele>316.5</ele><time>2026-04-01T15:10:53Z</time></trkpt><trkpt lat="43.10582569817249" lon="0.9823162546571609"><ele>314.0</ele><time>2026-04-01T15:10:54Z</time></trkpt><trkpt lat="43.10585509375144" lon="0.9824212438999623"><ele>314.0</ele><time>2026-04-01T15:10:55Z</time></trkpt><trkpt lat="43.10584581183738" lon="0.9825241557776495"><ele>314.0</ele><time>2026-04-01T15:10:56Z</time></trkpt><trkpt lat="43.10579131973631" lon="0.9826301717088629"><ele>314.0</ele><time>2026-04-01T15:10:57Z</time></trkpt><trkpt lat="43.105669445889994" lon="0.9826889913765309"><ele>314.0</ele><time>2026-04-01T15:10:58Z</time></trkpt><trkpt lat="43.10556030087239" lon="0.9828117944867544"><ele>314.0</ele><time>2026-04-01T15:10:59Z</time></trkpt><trkpt lat="43.105450454438355" lon="0.9829405364996745"><ele>314.0</ele><time>2026-04-01T15:11:00Z</time></trkpt><trkpt lat="43.10534925066234" lon="0.9830660470116565"><ele>314.0</ele><time>2026-04-01T15:11:01Z</time></trkpt><trkpt lat="43.10524438155707" lon="0.9832108301792889"><ele>314.0</ele><time>2026-04-01T15:11:02Z</time></trkpt><trkpt lat="43.1051599931006" lon="0.9833966228351436"><ele>314.0</ele><time>2026-04-01T15:11:03Z</time></trkpt><trkpt lat="43.10507897453586" lon="0.9836036815244696"><ele>314.33333333333337</ele><time>2026-04-01T15:11:04Z</time></trkpt><trkpt lat="43.10501521685265" lon="0.9838372839547972"><ele>314.6666666666667</ele><time>2026-04-01T15:11:05Z</time></trkpt><trkpt lat="43.10494722413313" lon="0.9840900638192176"><ele>315.0</ele><time>2026-04-01T15:11:06Z</time></trkpt><trkpt lat="43.104882848294224" lon="0.9843310091382013"><ele>315.0</ele><time>2026-04-01T15:11:07Z</time></trkpt><trkpt lat="43.10482675683775" lon="0.9845585286136107"><ele>315.0</ele><time>2026-04-01T15:11:08Z</time></trkpt><trkpt lat="43.104776376435154" lon="0.9847859220454623"><ele>315.0</ele><time>2026-04-01T15:11:09Z</time></trkpt><trkpt lat="43.10474294540693" lon="0.9850287042771412"><ele>317.0</ele><time>2026-04-01T15:11:10Z</time></trkpt><trkpt lat="43.10472864858724" lon="0.9852866161275287"><ele>319.0</ele><time>2026-04-01T15:11:11Z</time></trkpt><trkpt lat="43.104723699246435" lon="0.9855534128245772"><ele>321.0</ele><time>2026-04-01T15:11:12Z</time></trkpt><trkpt lat="43.1047237624479" lon="0.9858225286376507"><ele>324.6666666666667</ele><time>2026-04-01T15:11:13Z</time></trkpt><trkpt lat="43.10472128215775" lon="0.9860896868568192"><ele>328.33333333333337</ele><time>2026-04-01T15:11:14Z</time></trkpt><trkpt lat="43.10471772593764" lon="0.9863492852543643"><ele>332.0</ele><time>2026-04-01T15:11:15Z</time></trkpt><trkpt lat="43.104712447536386" lon="0.986595528123032"><ele>336.0</ele><time>2026-04-01T15:11:16Z</time></trkpt><trkpt lat="43.10471654879636" lon="0.986819849401239"><ele>340.0</ele><time>2026-04-01T15:11:17Z</time></trkpt><trkpt lat="43.10473230279167" lon="0.9870368675136572"><ele>344.0</ele><time>2026-04-01T15:11:18Z</time></trkpt><trkpt lat="43.104812459666086" lon="0.9872321028144888"><ele>344.0</ele><time>2026-04-01T15:11:19Z</time></trkpt><trkpt lat="43.10490965807763" lon="0.9874347140224566"><ele>344.0</ele><time>2026-04-01T15:11:20Z</time></trkpt><trkpt lat="43.10500898881538" lon="0.9876372362190686"><ele>344.0</ele><time>2026-04-01T15:11:21Z</time></trkpt><trkpt lat="43.1051255249774" lon="0.9878319152674474"><ele>345.6666666666667</ele><time>2026-04-01T15:11:22Z</time></trkpt><trkpt lat="43.105238878991855" lon="0.9880369444066318"><ele>347.3333333333333</ele><time>2026-04-01T15:11:23Z</time></trkpt><trkpt lat="43.10535625593084" lon="0.9882515686625921"><ele>349.0</ele><time>2026-04-01T15:11:24Z</time></trkpt><trkpt lat="43.10546827760942" lon="0.9884660815814841"><ele>350.3333333333333</ele><time>2026-04-01T15:11:25Z</time></trkpt><trkpt lat="43.105580865224645" lon="0.9886698067394128"><ele>351.6666666666667</ele><time>2026-04-01T15:11:26Z</time></trkpt><trkpt lat="43.10566012655595" lon="0.9888893581609173"><ele>353.0</ele><time>2026-04-01T15:11:27Z</time></trkpt><trkpt lat="43.10570809144783" lon="0.9891043009964484"><ele>353.6666666666667</ele><time>2026-04-01T15:11:28Z</time></trkpt><trkpt lat="43.105722816993065" lon="0.9893181008151618"><ele>354.3333333333333</ele><time>2026-04-01T15:11:29Z</time></trkpt><trkpt lat="43.105718660537775" lon="0.9895409877447588"><ele>355.0</ele><time>2026-04-01T15:11:30Z</time></trkpt><trkpt lat="43.10571625070784" lon="0.9897796263593336"><ele>355.0</ele><time>2026-04-01T15:11:31Z</time></trkpt><trkpt lat="43.10571506444513" lon="0.9900349164892193"><ele>355.0</ele><time>2026-04-01T15:11:32Z</time></trkpt><trkpt lat="43.10571557624911" lon="0.990306456215736"><ele>355.0</ele><time>2026-04-01T15:11:33Z</time></trkpt><trkpt lat="43.10573178258656" lon="0.9905951845049681"><ele>354.3333333333333</ele><time>2026-04-01T15:11:34Z</time></trkpt><trkpt lat="43.10572756953311" lon="0.9908895649178114"><ele>353.6666666666667</ele><time>2026-04-01T15:11:35Z</time></trkpt><trkpt lat="43.1057193789342" lon="0.991178033378434"><ele>353.0</ele><time>2026-04-01T15:11:36Z</time></trkpt><trkpt lat="43.105715058416784" lon="0.9914486017046035"><ele>355.0</ele><time>2026-04-01T15:11:37Z</time></trkpt><trkpt lat="43.1057275175604" lon="0.9917203178349954"><ele>357.0</ele><time>2026-04-01T15:11:38Z</time></trkpt><trkpt lat="43.105765060618765" lon="0.9919960237856942"><ele>359.0</ele><time>2026-04-01T15:11:39Z</time></trkpt><trkpt lat="43.10582553933676" lon="0.9922647688975438"><ele>361.0</ele><time>2026-04-01T15:11:40Z</time></trkpt><trkpt lat="43.10589820823396" lon="0.9925227562847848"><ele>363.0</ele><time>2026-04-01T15:11:41Z</time></trkpt><trkpt lat="43.10598040705736" lon="0.9927419179352027"><ele>365.0</ele><time>2026-04-01T15:11:42Z</time></trkpt><trkpt lat="43.10604697243032" lon="0.9929495642939352"><ele>365.0</ele><time>2026-04-01T15:11:43Z</time></trkpt><trkpt lat="43.1060755891033" lon="0.9931590524531929"><ele>365.0</ele><time>2026-04-01T15:11:44Z</time></trkpt><trkpt lat="43.1060945399184" lon="0.9934023296130441"><ele>365.0</ele><time>2026-04-01T15:11:45Z</time></trkpt><trkpt lat="43.10610494433012" lon="0.9936777963245567"><ele>366.0</ele><time>2026-04-01T15:11:46Z</time></trkpt><trkpt lat="43.10612768389662" lon="0.99396128745653"><ele>367.0</ele><time>2026-04-01T15:11:47Z</time></trkpt><trkpt lat="43.10613721672854" lon="0.9942592767424927"><ele>368.0</ele><time>2026-04-01T15:11:48Z</time></trkpt><trkpt lat="43.10612731367362" lon="0.9945758004662137"><ele>369.5</ele><time>2026-04-01T15:11:49Z</time></trkpt><trkpt lat="43.10613543735229" lon="0.9948948440436721"><ele>371.0</ele><time>2026-04-01T15:11:50Z</time></trkpt><trkpt lat="43.10615990051093" lon="0.9952021138840673"><ele>373.33333333333337</ele><time>2026-04-01T15:11:51Z</time></trkpt><trkpt lat="43.10616466514852" lon="0.9954875677060055"><ele>375.6666666666667</ele><time>2026-04-01T15:11:52Z</time></trkpt><trkpt lat="43.10616848502686" lon="0.9957690360901"><ele>378.0</ele><time>2026-04-01T15:11:53Z</time></trkpt><trkpt lat="43.106167210356304" lon="0.9960549469865204"><ele>379.3333333333333</ele><time>2026-04-01T15:11:54Z</time></trkpt><trkpt lat="43.10617903325633" lon="0.9963556288002184"><ele>380.66666666666663</ele><time>2026-04-01T15:11:55Z</time></trkpt><trkpt lat="43.10621331894931" lon="0.9966453487576161"><ele>382.0</ele><time>2026-04-01T15:11:56Z</time></trkpt><trkpt lat="43.106275623897496" lon="0.9969288592652057"><ele>383.0</ele><time>2026-04-01T15:11:57Z</time></trkpt><trkpt lat="43.10634132949065" lon="0.9971901715650904"><ele>384.0</ele><time>2026-04-01T15:11:58Z</time></trkpt><trkpt lat="43.10639553362548" lon="0.9974224120225724"><ele>385.0</ele><time>2026-04-01T15:11:59Z</time></trkpt><trkpt lat="43.10644166934537" lon="0.9976317022321769"><ele>385.75</ele><time>2026-04-01T15:12:00Z</time></trkpt><trkpt lat="43.10648271662872" lon="0.9978185150459549"><ele>386.5</ele><time>2026-04-01T15:12:01Z</time></trkpt><trkpt lat="43.10652110852597" lon="0.9979898192341723"><ele>387.25</ele><time>2026-04-01T15:12:02Z</time></trkpt><trkpt lat="43.1065457085243" lon="0.9981361976505334"><ele>388.0</ele><time>2026-04-01T15:12:03Z</time></trkpt><trkpt lat="43.1065443874524" lon="0.9982509499259655"><ele>388.0</ele><time>2026-04-01T15:12:04Z</time></trkpt><trkpt lat="43.106557415687604" lon="0.998340360453254"><ele>388.0</ele><time>2026-04-01T15:12:05Z</time></trkpt><trkpt lat="43.106423580653306" lon="0.9984221712630579"><ele>388.0</ele><time>2026-04-01T15:12:06Z</time></trkpt><trkpt lat="43.10632020569862" lon="0.9984548816454732"><ele>388.0</ele><time>2026-04-01T15:12:07Z</time></trkpt><trkpt lat="43.106200104376114" lon="0.9984142019693195"><ele>388.0</ele><time>2026-04-01T15:12:08Z</time></trkpt><trkpt lat="43.106060911443436" lon="0.9983696536101644"><ele>388.0</ele><time>2026-04-01T15:12:09Z</time></trkpt><trkpt lat="43.10590371763223" lon="0.9982814354400994"><ele>388.0</ele><time>2026-04-01T15:12:10Z</time></trkpt><trkpt lat="43.10575240850658" lon="0.9981730368616876"><ele>388.0</ele><time>2026-04-01T15:12:11Z</time></trkpt><trkpt lat="43.105603325009945" lon="0.9980769476226865"><ele>390.33333333333337</ele><time>2026-04-01T15:12:12Z</time></trkpt><trkpt lat="43.105459318366826" lon="0.9979685367839155"><ele>392.66666666666663</ele><time>2026-04-01T15:12:13Z</time></trkpt><trkpt lat="43.105287187837945" lon="0.9978943966711795"><ele>395.0</ele><time>2026-04-01T15:12:14Z</time></trkpt><trkpt lat="43.10509980214396" lon="0.9978428148897749"><ele>395.0</ele><time>2026-04-01T15:12:15Z</time></trkpt><trkpt lat="43.10492917682847" lon="0.9978124799554055"><ele>395.0</ele><time>2026-04-01T15:12:16Z</time></trkpt><trkpt lat="43.1047874197257" lon="0.9977963850831386"><ele>395.0</ele><time>2026-04-01T15:12:17Z</time></trkpt><trkpt lat="43.10465822656342" lon="0.9977882365414736"><ele>395.0</ele><time>2026-04-01T15:12:18Z</time></trkpt><trkpt lat="43.10453962828197" lon="0.997795169815759"><ele>396.0</ele><time>2026-04-01T15:12:19Z</time></trkpt><trkpt lat="43.10440607491003" lon="0.9978122829852817"><ele>397.0</ele><time>2026-04-01T15:12:20Z</time></trkpt><trkpt lat="43.10422047373741" lon="0.9978292478077914"><ele>398.0</ele><time>2026-04-01T15:12:21Z</time></trkpt><trkpt lat="43.104008367091346" lon="0.997838487053061"><ele>399.66666666666663</ele><time>2026-04-01T15:12:22Z</time></trkpt><trkpt lat="43.10381228173337" lon="0.9978372290612315"><ele>401.33333333333337</ele><time>2026-04-01T15:12:23Z</time></trkpt><trkpt lat="43.10362561990157" lon="0.9978362621565618"><ele>403.0</ele><time>2026-04-01T15:12:24Z</time></trkpt><trkpt lat="43.10344341410688" lon="0.997834271393153"><ele>403.0</ele><time>2026-04-01T15:12:25Z</time></trkpt><trkpt lat="43.10325785487886" lon="0.9978306574343165"><ele>403.0</ele><time>2026-04-01T15:12:26Z</time></trkpt><trkpt lat="43.10307141258169" lon="0.9978250932326906"><ele>403.0</ele><time>2026-04-01T15:12:27Z</time></trkpt><trkpt lat="43.10288400490652" lon="0.9977977710983845"><ele>403.33333333333337</ele><time>2026-04-01T15:12:28Z</time></trkpt><trkpt lat="43.1026957717113" lon="0.9977839282914708"><ele>403.66666666666663</ele><time>2026-04-01T15:12:29Z</time></trkpt><trkpt lat="43.10250450633036" lon="0.997778362226464"><ele>404.0</ele><time>2026-04-01T15:12:30Z</time></trkpt><trkpt lat="43.10232023703507" lon="0.9977539051200881"><ele>404.0</ele><time>2026-04-01T15:12:31Z</time></trkpt><trkpt lat="43.10214671630783" lon="0.9977300273400496"><ele>404.0</ele><time>2026-04-01T15:12:32Z</time></trkpt><trkpt lat="43.10197264863674" lon="0.997741697400479"><ele>404.0</ele><time>2026-04-01T15:12:33Z</time></trkpt><trkpt lat="43.101791324025925" lon="0.9977890586199888"><ele>404.0</ele><time>2026-04-01T15:12:34Z</time></trkpt><trkpt lat="43.10161218440196" lon="0.9978638627535272"><ele>404.0</ele><time>2026-04-01T15:12:35Z</time></trkpt><trkpt lat="43.10142464123321" lon="0.9979661199478009"><ele>404.0</ele><time>2026-04-01T15:12:36Z</time></trkpt><trkpt lat="43.10124578767787" lon="0.998094257058668"><ele>406.3333333333333</ele><time>2026-04-01T15:12:37Z</time></trkpt><trkpt lat="43.10108283990246" lon="0.9982547529151413"><ele>408.66666666666663</ele><time>2026-04-01T15:12:38Z</time></trkpt><trkpt lat="43.10093939842797" lon="0.9984382156304639"><ele>411.0</ele><time>2026-04-01T15:12:39Z</time></trkpt><trkpt lat="43.10081376489319" lon="0.998640417701236"><ele>411.33333333333337</ele><time>2026-04-01T15:12:40Z</time></trkpt><trkpt lat="43.10070130456268" lon="0.9988585310685227"><ele>411.6666666666667</ele><time>2026-04-01T15:12:41Z</time></trkpt><trkpt lat="43.100589810833036" lon="0.999080308518125"><ele>412.0</ele><time>2026-04-01T15:12:42Z</time></trkpt><trkpt lat="43.10047110326061" lon="0.9993005707153149"><ele>412.0</ele><time>2026-04-01T15:12:43Z</time></trkpt><trkpt lat="43.100350286346995" lon="0.9995226409051603"><ele>412.0</ele><time>2026-04-01T15:12:44Z</time></trkpt><trkpt lat="43.100233626068324" lon="0.9997434485491317"><ele>412.0</ele><time>2026-04-01T15:12:45Z</time></trkpt><trkpt lat="43.10011347391805" lon="0.9999767930218543"><ele>412.0</ele><time>2026-04-01T15:12:46Z</time></trkpt><trkpt lat="43.09998489810639" lon="1.000221492797962"><ele>412.0</ele><time>2026-04-01T15:12:47Z</time></trkpt><trkpt lat="43.09984937110287" lon="1.0004706459604735"><ele>412.0</ele><time>2026-04-01T15:12:48Z</time></trkpt><trkpt lat="43.0997112776018" lon="1.0007177266470686"><ele>410.6666666666667</ele><time>2026-04-01T15:12:49Z</time></trkpt><trkpt lat="43.09957649413686" lon="1.0009585638586844"><ele>409.33333333333337</ele><time>2026-04-01T15:12:50Z</time></trkpt><trkpt lat="43.099440601190494" lon="1.0012027940035262"><ele>408.0</ele><time>2026-04-01T15:12:51Z</time></trkpt><trkpt lat="43.099306185032894" lon="1.001436964722968"><ele>408.0</ele><time>2026-04-01T15:12:52Z</time></trkpt><trkpt lat="43.09917713370798" lon="1.0016565221358353"><ele>408.0</ele><time>2026-04-01T15:12:53Z</time></trkpt><trkpt lat="43.09905920690898" lon="1.0018465562664916"><ele>408.0</ele><time>2026-04-01T15:12:54Z</time></trkpt><trkpt lat="43.098955923959664" lon="1.0020182386172614"><ele>410.0</ele><time>2026-04-01T15:12:55Z</time></trkpt><trkpt lat="43.09887197787195" lon="1.0021777424024354"><ele>412.0</ele><time>2026-04-01T15:12:56Z</time></trkpt><trkpt lat="43.09880086570663" lon="1.0023403657564929"><ele>414.0</ele><time>2026-04-01T15:12:57Z</time></trkpt><trkpt lat="43.09873559761185" lon="1.0025052421268725"><ele>416.0</ele><time>2026-04-01T15:12:58Z</time></trkpt><trkpt lat="43.09867363416124" lon="1.0026856282125194"><ele>418.0</ele><time>2026-04-01T15:12:59Z</time></trkpt><trkpt lat="43.09862504173298" lon="1.0028762564362805"><ele>420.0</ele><time>2026-04-01T15:13:00Z</time></trkpt><trkpt lat="43.09857861918436" lon="1.0030767138342482"><ele>422.0</ele><time>2026-04-01T15:13:01Z</time></trkpt><trkpt lat="43.098525002724706" lon="1.003279287711321"><ele>422.66666666666663</ele><time>2026-04-01T15:13:02Z</time></trkpt><trkpt lat="43.098464743769526" lon="1.0034912844926465"><ele>423.33333333333337</ele><time>2026-04-01T15:13:03Z</time></trkpt><trkpt lat="43.098398997776265" lon="1.0037025448577754"><ele>424.0</ele><time>2026-04-01T15:13:04Z</time></trkpt><trkpt lat="43.09832778240793" lon="1.0038887144525606"><ele>424.0</ele><time>2026-04-01T15:13:05Z</time></trkpt><trkpt lat="43.098254789912026" lon="1.0040613624985746"><ele>424.0</ele><time>2026-04-01T15:13:06Z</time></trkpt><trkpt lat="43.098192449593185" lon="1.004235306049356"><ele>424.0</ele><time>2026-04-01T15:13:07Z</time></trkpt><trkpt lat="43.09814029326395" lon="1.0044270178318893"><ele>424.0</ele><time>2026-04-01T15:13:08Z</time></trkpt><trkpt lat="43.09809898353944" lon="1.0046307325560806"><ele>419.0</ele><time>2026-04-01T15:13:09Z</time></trkpt><trkpt lat="43.0980732360898" lon="1.0048358635073193"><ele>414.0</ele><time>2026-04-01T15:13:10Z</time></trkpt><trkpt lat="43.09805700241521" lon="1.0050414907919596"><ele>409.0</ele><time>2026-04-01T15:13:11Z</time></trkpt><trkpt lat="43.098045551597146" lon="1.005255423605909"><ele>407.6666666666667</ele><time>2026-04-01T15:13:12Z</time></trkpt><trkpt lat="43.098046206970096" lon="1.0054735884949317"><ele>406.33333333333337</ele><time>2026-04-01T15:13:13Z</time></trkpt><trkpt lat="43.09805002839184" lon="1.0057014116943375"><ele>405.0</ele><time>2026-04-01T15:13:14Z</time></trkpt><trkpt lat="43.0980414098486" lon="1.005921536905377"><ele>405.0</ele><time>2026-04-01T15:13:15Z</time></trkpt><trkpt lat="43.09801967491212" lon="1.0061323770188497"><ele>405.0</ele><time>2026-04-01T15:13:16Z</time></trkpt><trkpt lat="43.097973081928345" lon="1.0063415781640441"><ele>405.0</ele><time>2026-04-01T15:13:17Z</time></trkpt><trkpt lat="43.097885865705074" lon="1.006543075549956"><ele>406.0</ele><time>2026-04-01T15:13:18Z</time></trkpt><trkpt lat="43.09781646296" lon="1.00675373283418"><ele>407.0</ele><time>2026-04-01T15:13:19Z</time></trkpt><trkpt lat="43.097733084563885" lon="1.0069397601409298"><ele>408.0</ele><time>2026-04-01T15:13:20Z</time></trkpt><trkpt lat="43.09767097307803" lon="1.0071387078002239"><ele>408.0</ele><time>2026-04-01T15:13:21Z</time></trkpt><trkpt lat="43.097643315479594" lon="1.0073576741268537"><ele>408.0</ele><time>2026-04-01T15:13:22Z</time></trkpt><trkpt lat="43.09764051307569" lon="1.0075848932029188"><ele>408.0</ele><time>2026-04-01T15:13:23Z</time></trkpt><trkpt lat="43.097645204717125" lon="1.00781292672302"><ele>407.75</ele><time>2026-04-01T15:13:24Z</time></trkpt><trkpt lat="43.09762637325778" lon="1.0080347905222686"><ele>407.5</ele><time>2026-04-01T15:13:25Z</time></trkpt><trkpt lat="43.09758918401492" lon="1.00822577795901"><ele>407.25</ele><time>2026-04-01T15:13:26Z</time></trkpt><trkpt lat="43.09752942479834" lon="1.0083892260410146"><ele>407.0</ele><time>2026-04-01T15:13:27Z</time></trkpt><trkpt lat="43.097447364628486" lon="1.0085437546647695"><ele>406.25</ele><time>2026-04-01T15:13:28Z</time></trkpt><trkpt lat="43.09734561284215" lon="1.0086880218031797"><ele>405.5</ele><time>2026-04-01T15:13:29Z</time></trkpt><trkpt lat="43.09726103582792" lon="1.0088454564905585"><ele>404.75</ele><time>2026-04-01T15:13:30Z</time></trkpt><trkpt lat="43.09718456628931" lon="1.009015504862294"><ele>404.0</ele><time>2026-04-01T15:13:31Z</time></trkpt><trkpt lat="43.097098502368915" lon="1.0091521600109297"><ele>405.66666666666663</ele><time>2026-04-01T15:13:32Z</time></trkpt><trkpt lat="43.09702910427426" lon="1.0092504706019871"><ele>407.3333333333333</ele><time>2026-04-01T15:13:33Z</time></trkpt><trkpt lat="43.09695530498109" lon="1.0093191315859855"><ele>409.0</ele><time>2026-04-01T15:13:34Z</time></trkpt><trkpt lat="43.09689566163123" lon="1.0093664964805604"><ele>410.66666666666663</ele><time>2026-04-01T15:13:35Z</time></trkpt><trkpt lat="43.096838845654815" lon="1.0094424897601337"><ele>412.3333333333333</ele><time>2026-04-01T15:13:37Z</time></trkpt><trkpt lat="43.096812325197014" lon="1.0095419609426382"><ele>414.0</ele><time>2026-04-01T15:13:39Z</time></trkpt><trkpt lat="43.09686810948231" lon="1.0096635942377556"><ele>414.0</ele><time>2026-04-01T15:13:40Z</time></trkpt><trkpt lat="43.09690336992283" lon="1.0097991826192565"><ele>414.0</ele><time>2026-04-01T15:13:41Z</time></trkpt><trkpt lat="43.096939900964244" lon="1.0099440952414118"><ele>414.0</ele><time>2026-04-01T15:13:42Z</time></trkpt><trkpt lat="43.096998704545236" lon="1.010088283210904"><ele>414.0</ele><time>2026-04-01T15:13:43Z</time></trkpt><trkpt lat="43.097088412219925" lon="1.0102186081845788"><ele>415.5</ele><time>2026-04-01T15:13:44Z</time></trkpt><trkpt lat="43.09720942259107" lon="1.0103463741234915"><ele>417.0</ele><time>2026-04-01T15:13:45Z</time></trkpt><trkpt lat="43.09732338190798" lon="1.0104282294630753"><ele>418.5</ele><time>2026-04-01T15:13:46Z</time></trkpt><trkpt lat="43.097427080301834" lon="1.0104908037772418"><ele>420.0</ele><time>2026-04-01T15:13:47Z</time></trkpt><trkpt lat="43.097527844770454" lon="1.010543862880829"><ele>417.8</ele><time>2026-04-01T15:13:48Z</time></trkpt><trkpt lat="43.09761848255319" lon="1.0105946077016286"><ele>415.6</ele><time>2026-04-01T15:13:49Z</time></trkpt><trkpt lat="43.09767576343495" lon="1.010632216481437"><ele>413.4</ele><time>2026-04-01T15:13:50Z</time></trkpt><trkpt lat="43.097787982739895" lon="1.0106903174465878"><ele>411.2</ele><time>2026-04-01T15:17:38Z</time></trkpt><trkpt lat="43.097895135074474" lon="1.0107622530822271"><ele>409.0</ele><time>2026-04-01T15:17:39Z</time></trkpt><trkpt lat="43.09799410080031" lon="1.0108410431797497"><ele>409.0</ele><time>2026-04-01T15:17:40Z</time></trkpt><trkpt lat="43.09807968302819" lon="1.0109218220562664"><ele>409.0</ele><time>2026-04-01T15:17:41Z</time></trkpt><trkpt lat="43.09815800603876" lon="1.0110124373314422"><ele>409.0</ele><time>2026-04-01T15:17:42Z</time></trkpt><trkpt lat="43.09822988727959" lon="1.0111186664854865"><ele>409.0</ele><time>2026-04-01T15:17:43Z</time></trkpt><trkpt lat="43.0982951727812" lon="1.0112351571620157"><ele>409.0</ele><time>2026-04-01T15:17:44Z</time></trkpt><trkpt lat="43.098349458355486" lon="1.0113625637256933"><ele>406.75</ele><time>2026-04-01T15:17:45Z</time></trkpt><trkpt lat="43.09839018696905" lon="1.0115044798891184"><ele>404.5</ele><time>2026-04-01T15:17:46Z</time></trkpt><trkpt lat="43.098419537521096" lon="1.0116736085421547"><ele>402.25</ele><time>2026-04-01T15:17:47Z</time></trkpt><trkpt lat="43.09843618297561" lon="1.011866217284038"><ele>400.0</ele><time>2026-04-01T15:17:48Z</time></trkpt><trkpt lat="43.09843973784781" lon="1.0120806595859722"><ele>400.0</ele><time>2026-04-01T15:17:49Z</time></trkpt><trkpt lat="43.09844623551376" lon="1.0122876690921037"><ele>400.0</ele><time>2026-04-01T15:17:50Z</time></trkpt><trkpt lat="43.098462140441804" lon="1.0125001451042912"><ele>400.0</ele><time>2026-04-01T15:17:51Z</time></trkpt><trkpt lat="43.09848768753231" lon="1.012716116818826"><ele>399.6666666666667</ele><time>2026-04-01T15:17:52Z</time></trkpt><trkpt lat="43.09852920802626" lon="1.0129336144317267"><ele>399.33333333333337</ele><time>2026-04-01T15:17:53Z</time></trkpt><trkpt lat="43.09857788672641" lon="1.0131520413914945"><ele>399.0</ele><time>2026-04-01T15:17:54Z</time></trkpt><trkpt lat="43.098625423426526" lon="1.0133689411212776"><ele>395.66666666666663</ele><time>2026-04-01T15:17:55Z</time></trkpt><trkpt lat="43.09867176112855" lon="1.0135898861005612"><ele>392.3333333333333</ele><time>2026-04-01T15:17:56Z</time></trkpt><trkpt lat="43.098721449652906" lon="1.013809494394085"><ele>389.0</ele><time>2026-04-01T15:17:57Z</time></trkpt><trkpt lat="43.09876905172549" lon="1.014020944293273"><ele>386.75</ele><time>2026-04-01T15:17:58Z</time></trkpt><trkpt lat="43.098814065017095" lon="1.0142213243422888"><ele>384.5</ele><time>2026-04-01T15:17:59Z</time></trkpt><trkpt lat="43.098855020252024" lon="1.0144140571615534"><ele>382.25</ele><time>2026-04-01T15:18:00Z</time></trkpt><trkpt lat="43.098892136199204" lon="1.0146006746663754"><ele>380.0</ele><time>2026-04-01T15:18:01Z</time></trkpt><trkpt lat="43.098919025024045" lon="1.0147824802665355"><ele>380.0</ele><time>2026-04-01T15:18:02Z</time></trkpt><trkpt lat="43.098924538043875" lon="1.014965704662563"><ele>380.0</ele><time>2026-04-01T15:18:03Z</time></trkpt><trkpt lat="43.09889970800774" lon="1.0151540659329932"><ele>380.0</ele><time>2026-04-01T15:18:04Z</time></trkpt><trkpt lat="43.098853949982356" lon="1.0153326466290782"><ele>380.0</ele><time>2026-04-01T15:18:05Z</time></trkpt><trkpt lat="43.09879206547931" lon="1.0155088732161668"><ele>378.0</ele><time>2026-04-01T15:18:06Z</time></trkpt><trkpt lat="43.098724053518424" lon="1.0157103179692901"><ele>376.0</ele><time>2026-04-01T15:18:07Z</time></trkpt><trkpt lat="43.09865858119893" lon="1.0159074584622922"><ele>374.0</ele><time>2026-04-01T15:18:08Z</time></trkpt><trkpt lat="43.098591873536314" lon="1.0161079021582493"><ele>373.0</ele><time>2026-04-01T15:18:09Z</time></trkpt><trkpt lat="43.09853928549418" lon="1.016294422117816"><ele>372.0</ele><time>2026-04-01T15:18:10Z</time></trkpt><trkpt lat="43.09851561904935" lon="1.016489961630386"><ele>371.0</ele><time>2026-04-01T15:18:11Z</time></trkpt><trkpt lat="43.09852500380326" lon="1.0166994662907514"><ele>370.0</ele><time>2026-04-01T15:18:12Z</time></trkpt><trkpt lat="43.0985623510328" lon="1.0169130255588938"><ele>369.0</ele><time>2026-04-01T15:18:13Z</time></trkpt><trkpt lat="43.098619985118276" lon="1.0171292496185182"><ele>368.0</ele><time>2026-04-01T15:18:14Z</time></trkpt><trkpt lat="43.09868495081689" lon="1.017353759766938"><ele>367.0</ele><time>2026-04-01T15:18:15Z</time></trkpt><trkpt lat="43.09874687228491" lon="1.0175836902271695"><ele>364.66666666666663</ele><time>2026-04-01T15:18:16Z</time></trkpt><trkpt lat="43.09880197018117" lon="1.0178162503394492"><ele>362.3333333333333</ele><time>2026-04-01T15:18:17Z</time></trkpt><trkpt lat="43.098848955710686" lon="1.0180520427481163"><ele>360.0</ele><time>2026-04-01T15:18:18Z</time></trkpt><trkpt lat="43.09889252110736" lon="1.0182913311110875"><ele>358.3333333333333</ele><time>2026-04-01T15:18:19Z</time></trkpt><trkpt lat="43.098930837706035" lon="1.0185216512126793"><ele>356.66666666666663</ele><time>2026-04-01T15:18:20Z</time></trkpt><trkpt lat="43.09897730142671" lon="1.0187429890624498"><ele>355.0</ele><time>2026-04-01T15:18:21Z</time></trkpt><trkpt lat="43.099047658466944" lon="1.0189305653543177"><ele>357.3333333333333</ele><time>2026-04-01T15:18:22Z</time></trkpt><trkpt lat="43.09913403483277" lon="1.0191066853529471"><ele>359.6666666666667</ele><time>2026-04-01T15:18:23Z</time></trkpt><trkpt lat="43.099213121855826" lon="1.0192868971348166"><ele>362.0</ele><time>2026-04-01T15:18:24Z</time></trkpt><trkpt lat="43.09927938593267" lon="1.0194847719129363"><ele>362.0</ele><time>2026-04-01T15:18:25Z</time></trkpt><trkpt lat="43.099319019880575" lon="1.0196861321031527"><ele>362.0</ele><time>2026-04-01T15:18:26Z</time></trkpt><trkpt lat="43.099326369974726" lon="1.0198844198563055"><ele>362.0</ele><time>2026-04-01T15:18:27Z</time></trkpt><trkpt lat="43.09929126571105" lon="1.0200700293514269"><ele>362.0</ele><time>2026-04-01T15:18:28Z</time></trkpt><trkpt lat="43.09921551929739" lon="1.0202300529319641"><ele>359.6666666666667</ele><time>2026-04-01T15:18:29Z</time></trkpt><trkpt lat="43.09909763521558" lon="1.0203717059671227"><ele>357.3333333333333</ele><time>2026-04-01T15:18:30Z</time></trkpt><trkpt lat="43.099004066409606" lon="1.0205352932329905"><ele>355.0</ele><time>2026-04-01T15:18:31Z</time></trkpt><trkpt lat="43.098960650235796" lon="1.0207310328002537"><ele>351.3333333333333</ele><time>2026-04-01T15:18:32Z</time></trkpt><trkpt lat="43.09893284854995" lon="1.0209281038042246"><ele>347.6666666666667</ele><time>2026-04-01T15:18:33Z</time></trkpt><trkpt lat="43.09893836653604" lon="1.0211447123319204"><ele>344.0</ele><time>2026-04-01T15:18:34Z</time></trkpt><trkpt lat="43.09896879779646" lon="1.021364670517092"><ele>344.0</ele><time>2026-04-01T15:18:35Z</time></trkpt><trkpt lat="43.0990043065698" lon="1.0215784793145848"><ele>344.0</ele><time>2026-04-01T15:18:36Z</time></trkpt><trkpt lat="43.09899310603415" lon="1.021767030035788"><ele>344.0</ele><time>2026-04-01T15:18:37Z</time></trkpt><trkpt lat="43.09896623300918" lon="1.0219240692267113"><ele>344.0</ele><time>2026-04-01T15:18:38Z</time></trkpt><trkpt lat="43.09892294418877" lon="1.0220697827798157"><ele>343.33333333333337</ele><time>2026-04-01T15:18:39Z</time></trkpt><trkpt lat="43.09880880952593" lon="1.022259202080835"><ele>342.6666666666667</ele><time>2026-04-01T15:18:40Z</time></trkpt><trkpt lat="43.098697798184524" lon="1.022395033040052"><ele>342.0</ele><time>2026-04-01T15:18:41Z</time></trkpt><trkpt lat="43.09856717866458" lon="1.0225176841444201"><ele>342.0</ele><time>2026-04-01T15:18:42Z</time></trkpt><trkpt lat="43.09842742232262" lon="1.0226403614445132"><ele>342.0</ele><time>2026-04-01T15:18:43Z</time></trkpt><trkpt lat="43.09830215211645" lon="1.0227759937950178"><ele>342.0</ele><time>2026-04-01T15:18:44Z</time></trkpt><trkpt lat="43.0981790441975" lon="1.0229138428930136"><ele>341.3333333333333</ele><time>2026-04-01T15:18:45Z</time></trkpt><trkpt lat="43.09807379586923" lon="1.0230990799158528"><ele>340.66666666666663</ele><time>2026-04-01T15:18:46Z</time></trkpt><trkpt lat="43.097990825787804" lon="1.0233158736730301"><ele>340.0</ele><time>2026-04-01T15:18:47Z</time></trkpt><trkpt lat="43.09791229316992" lon="1.0235502911964833"><ele>338.3333333333333</ele><time>2026-04-01T15:18:48Z</time></trkpt><trkpt lat="43.09782429877031" lon="1.0237713866442941"><ele>336.6666666666667</ele><time>2026-04-01T15:18:49Z</time></trkpt><trkpt lat="43.09769744275613" lon="1.02394080375511"><ele>335.0</ele><time>2026-04-01T15:18:50Z</time></trkpt><trkpt lat="43.09757403100968" lon="1.0241010309640994"><ele>334.33333333333337</ele><time>2026-04-01T15:18:51Z</time></trkpt><trkpt lat="43.09746941799692" lon="1.0242738156439883"><ele>333.6666666666667</ele><time>2026-04-01T15:18:52Z</time></trkpt><trkpt lat="43.097364343113846" lon="1.024433409130597"><ele>333.0</ele><time>2026-04-01T15:18:53Z</time></trkpt><trkpt lat="43.097284259426885" lon="1.0246152397830401"><ele>335.0</ele><time>2026-04-01T15:18:54Z</time></trkpt><trkpt lat="43.09722037207753" lon="1.0248132572059419"><ele>337.0</ele><time>2026-04-01T15:18:55Z</time></trkpt><trkpt lat="43.09718089988066" lon="1.0250289250880316"><ele>339.0</ele><time>2026-04-01T15:18:56Z</time></trkpt><trkpt lat="43.09716049062786" lon="1.025260016997775"><ele>335.0</ele><time>2026-04-01T15:18:57Z</time></trkpt><trkpt lat="43.09715722793817" lon="1.0255064200773618"><ele>331.0</ele><time>2026-04-01T15:18:58Z</time></trkpt><trkpt lat="43.09715794703153" lon="1.0257557469802676"><ele>327.0</ele><time>2026-04-01T15:18:59Z</time></trkpt><trkpt lat="43.09715084547946" lon="1.0260040738882876"><ele>324.6666666666667</ele><time>2026-04-01T15:19:00Z</time></trkpt><trkpt lat="43.09713227695409" lon="1.026237567643126"><ele>322.33333333333337</ele><time>2026-04-01T15:19:01Z</time></trkpt><trkpt lat="43.09707158489941" lon="1.0264363339441522"><ele>320.0</ele><time>2026-04-01T15:19:02Z</time></trkpt><trkpt lat="43.09701078499338" lon="1.0266263014482442"><ele>319.33333333333337</ele><time>2026-04-01T15:19:03Z</time></trkpt><trkpt lat="43.09692624464409" lon="1.0268041592979738"><ele>318.6666666666667</ele><time>2026-04-01T15:19:04Z</time></trkpt><trkpt lat="43.096825641792904" lon="1.0269872287514397"><ele>318.0</ele><time>2026-04-01T15:19:05Z</time></trkpt><trkpt lat="43.09672544454032" lon="1.0271651352917164"><ele>318.0</ele><time>2026-04-01T15:19:06Z</time></trkpt><trkpt lat="43.09665070271473" lon="1.0273442582233188"><ele>318.0</ele><time>2026-04-01T15:19:07Z</time></trkpt><trkpt lat="43.09660036367957" lon="1.0275191551269076"><ele>318.0</ele><time>2026-04-01T15:19:08Z</time></trkpt><trkpt lat="43.09653621440681" lon="1.027675129534406"><ele>318.0</ele><time>2026-04-01T15:19:09Z</time></trkpt><trkpt lat="43.09648107949588" lon="1.0278193293950975"><ele>318.8</ele><time>2026-04-01T15:19:10Z</time></trkpt><trkpt lat="43.09641278150245" lon="1.027922728887974"><ele>319.6</ele><time>2026-04-01T15:19:11Z</time></trkpt><trkpt lat="43.09636627031331" lon="1.0280154395993513"><ele>320.40000000000003</ele><time>2026-04-01T15:19:12Z</time></trkpt><trkpt lat="43.09643999420422" lon="1.028177330056653"><ele>321.20000000000005</ele><time>2026-04-01T15:19:13Z</time></trkpt><trkpt lat="43.09649420158609" lon="1.0283200309831917"><ele>322.0</ele><time>2026-04-01T15:19:14Z</time></trkpt><trkpt lat="43.096570292402674" lon="1.0284905162696016"><ele>321.3333333333333</ele><time>2026-04-01T15:19:15Z</time></trkpt><trkpt lat="43.09664883260219" lon="1.0286975865462542"><ele>320.6666666666667</ele><time>2026-04-01T15:19:16Z</time></trkpt><trkpt lat="43.09671212699392" lon="1.028888787146278"><ele>320.0</ele><time>2026-04-01T15:19:17Z</time></trkpt><trkpt lat="43.09676858561575" lon="1.0290835638472284"><ele>323.33333333333337</ele><time>2026-04-01T15:19:18Z</time></trkpt><trkpt lat="43.09684426887565" lon="1.0292619477503613"><ele>326.6666666666667</ele><time>2026-04-01T15:19:19Z</time></trkpt><trkpt lat="43.0969578459125" lon="1.0294006775081412"><ele>330.0</ele><time>2026-04-01T15:19:20Z</time></trkpt><trkpt lat="43.09709986583921" lon="1.029493230989858"><ele>330.0</ele><time>2026-04-01T15:19:21Z</time></trkpt><trkpt lat="43.09724785705661" lon="1.0295665331816861"><ele>330.0</ele><time>2026-04-01T15:19:22Z</time></trkpt><trkpt lat="43.09739408961558" lon="1.0296488745606736"><ele>330.0</ele><time>2026-04-01T15:19:23Z</time></trkpt><trkpt lat="43.09751966937625" lon="1.02974180291945"><ele>328.0</ele><time>2026-04-01T15:19:24Z</time></trkpt><trkpt lat="43.09759646069139" lon="1.029877718059588"><ele>326.0</ele><time>2026-04-01T15:19:25Z</time></trkpt><trkpt lat="43.097670014603054" lon="1.030003433708829"><ele>324.0</ele><time>2026-04-01T15:19:26Z</time></trkpt><trkpt lat="43.09774652042766" lon="1.0301613675119625"><ele>322.0</ele><time>2026-04-01T15:19:27Z</time></trkpt><trkpt lat="43.09782561431227" lon="1.0303439304140296"><ele>322.0</ele><time>2026-04-01T15:19:28Z</time></trkpt><trkpt lat="43.097880671266815" lon="1.0305538134615868"><ele>322.0</ele><time>2026-04-01T15:19:29Z</time></trkpt><trkpt lat="43.09794889929433" lon="1.0307582984446546"><ele>322.0</ele><time>2026-04-01T15:19:30Z</time></trkpt><trkpt lat="43.09802029978136" lon="1.0309602824156345"><ele>323.3333333333333</ele><time>2026-04-01T15:19:31Z</time></trkpt><trkpt lat="43.09809188088003" lon="1.0311635001513573"><ele>324.6666666666667</ele><time>2026-04-01T15:19:32Z</time></trkpt><trkpt lat="43.09816220370315" lon="1.0313654570663122"><ele>326.0</ele><time>2026-04-01T15:19:33Z</time></trkpt><trkpt lat="43.098231051757544" lon="1.0315826875351073"><ele>322.33333333333337</ele><time>2026-04-01T15:19:34Z</time></trkpt><trkpt lat="43.09829361800574" lon="1.0318049661449797"><ele>318.6666666666667</ele><time>2026-04-01T15:19:35Z</time></trkpt><trkpt lat="43.09835228015608" lon="1.0320195098191791"><ele>315.0</ele><time>2026-04-01T15:19:36Z</time></trkpt><trkpt lat="43.09841362224308" lon="1.0322376886198825"><ele>315.0</ele><time>2026-04-01T15:19:37Z</time></trkpt><trkpt lat="43.09847701513677" lon="1.0324653005495807"><ele>315.0</ele><time>2026-04-01T15:19:38Z</time></trkpt><trkpt lat="43.098538579295926" lon="1.0326959850798165"><ele>315.0</ele><time>2026-04-01T15:19:39Z</time></trkpt><trkpt lat="43.098600691994854" lon="1.0329253341790665"><ele>316.0</ele><time>2026-04-01T15:19:40Z</time></trkpt><trkpt lat="43.09865512757123" lon="1.0331524854172294"><ele>317.0</ele><time>2026-04-01T15:19:41Z</time></trkpt><trkpt lat="43.09870417423286" lon="1.0333894936383938"><ele>318.0</ele><time>2026-04-01T15:19:42Z</time></trkpt><trkpt lat="43.09873825917362" lon="1.0336338985628442"><ele>318.6666666666667</ele><time>2026-04-01T15:19:43Z</time></trkpt><trkpt lat="43.098749063037786" lon="1.0338836748355893"><ele>319.33333333333337</ele><time>2026-04-01T15:19:44Z</time></trkpt><trkpt lat="43.09874519027935" lon="1.0341356645217363"><ele>320.0</ele><time>2026-04-01T15:19:45Z</time></trkpt><trkpt lat="43.09873179713782" lon="1.034391169974968"><ele>320.6666666666667</ele><time>2026-04-01T15:19:46Z</time></trkpt><trkpt lat="43.09872100455347" lon="1.034645505568736"><ele>321.3333333333333</ele><time>2026-04-01T15:19:47Z</time></trkpt><trkpt lat="43.09871069023031" lon="1.0348959321147084"><ele>322.0</ele><time>2026-04-01T15:19:48Z</time></trkpt><trkpt lat="43.09870314708173" lon="1.0351497824954408"><ele>322.0</ele><time>2026-04-01T15:19:49Z</time></trkpt><trkpt lat="43.09869405419863" lon="1.0353975135773015"><ele>322.0</ele><time>2026-04-01T15:19:50Z</time></trkpt><trkpt lat="43.098686931615475" lon="1.035648099057732"><ele>322.0</ele><time>2026-04-01T15:19:51Z</time></trkpt><trkpt lat="43.098680355206774" lon="1.0358943021586515"><ele>322.66666666666663</ele><time>2026-04-01T15:19:52Z</time></trkpt><trkpt lat="43.09867403154406" lon="1.0361470059533189"><ele>323.3333333333333</ele><time>2026-04-01T15:19:53Z</time></trkpt><trkpt lat="43.098668938768796" lon="1.0364024690992364"><ele>324.0</ele><time>2026-04-01T15:19:54Z</time></trkpt><trkpt lat="43.09866544699615" lon="1.0366564544668577"><ele>324.3333333333333</ele><time>2026-04-01T15:19:55Z</time></trkpt><trkpt lat="43.09866306069081" lon="1.0369130536903597"><ele>324.66666666666663</ele><time>2026-04-01T15:19:56Z</time></trkpt><trkpt lat="43.09867126263434" lon="1.037171572876206"><ele>325.0</ele><time>2026-04-01T15:19:57Z</time></trkpt><trkpt lat="43.09870097201613" lon="1.037420855449717"><ele>327.3333333333333</ele><time>2026-04-01T15:19:58Z</time></trkpt><trkpt lat="43.09875636407902" lon="1.0376463583488575"><ele>329.6666666666667</ele><time>2026-04-01T15:19:59Z</time></trkpt><trkpt lat="43.09881936565738" lon="1.037852000526419"><ele>332.0</ele><time>2026-04-01T15:20:00Z</time></trkpt><trkpt lat="43.09887956335647" lon="1.0380403811404244"><ele>332.0</ele><time>2026-04-01T15:20:01Z</time></trkpt><trkpt lat="43.0989230445623" lon="1.0382370909794907"><ele>332.0</ele><time>2026-04-01T15:20:02Z</time></trkpt><trkpt lat="43.09895174419777" lon="1.0384694475379597"><ele>332.0</ele><time>2026-04-01T15:20:03Z</time></trkpt><trkpt lat="43.0989689880942" lon="1.038717271661389"><ele>332.0</ele><time>2026-04-01T15:20:04Z</time></trkpt><trkpt lat="43.0989768608397" lon="1.0389630796553948"><ele>332.0</ele><time>2026-04-01T15:20:05Z</time></trkpt><trkpt lat="43.09896626010102" lon="1.0391963055115896"><ele>332.0</ele><time>2026-04-01T15:20:06Z</time></trkpt><trkpt lat="43.09894310056241" lon="1.0394375105784062"><ele>332.33333333333337</ele><time>2026-04-01T15:20:07Z</time></trkpt><trkpt lat="43.09891458712472" lon="1.039673201657585"><ele>332.6666666666667</ele><time>2026-04-01T15:20:08Z</time></trkpt><trkpt lat="43.09888780513223" lon="1.0399149934183407"><ele>333.0</ele><time>2026-04-01T15:20:09Z</time></trkpt><trkpt lat="43.09886711267951" lon="1.0401592012537033"><ele>333.3333333333333</ele><time>2026-04-01T15:20:10Z</time></trkpt><trkpt lat="43.09886430667842" lon="1.0404074260250968"><ele>333.66666666666663</ele><time>2026-04-01T15:20:11Z</time></trkpt><trkpt lat="43.09887880120408" lon="1.0406542305985338"><ele>334.0</ele><time>2026-04-01T15:20:12Z</time></trkpt><trkpt lat="43.098890204294506" lon="1.040903481538532"><ele>334.3333333333333</ele><time>2026-04-01T15:20:13Z</time></trkpt><trkpt lat="43.0988857861594" lon="1.0411474860294312"><ele>334.6666666666667</ele><time>2026-04-01T15:20:14Z</time></trkpt><trkpt lat="43.09886250700061" lon="1.0413992095295526"><ele>335.0</ele><time>2026-04-01T15:20:15Z</time></trkpt><trkpt lat="43.098832999384825" lon="1.0416448184897762"><ele>336.33333333333337</ele><time>2026-04-01T15:20:16Z</time></trkpt><trkpt lat="43.0988085142184" lon="1.0418921674570893"><ele>337.6666666666667</ele><time>2026-04-01T15:20:17Z</time></trkpt><trkpt lat="43.09879373676592" lon="1.0421362985813383"><ele>339.0</ele><time>2026-04-01T15:20:18Z</time></trkpt><trkpt lat="43.09879341636465" lon="1.0423856861231517"><ele>340.6666666666667</ele><time>2026-04-01T15:20:19Z</time></trkpt><trkpt lat="43.098798649860754" lon="1.04262222867367"><ele>342.33333333333337</ele><time>2026-04-01T15:20:20Z</time></trkpt><trkpt lat="43.098804898414414" lon="1.0428399401526305"><ele>344.0</ele><time>2026-04-01T15:20:21Z</time></trkpt><trkpt lat="43.098809885682265" lon="1.0430448145806355"><ele>344.0</ele><time>2026-04-01T15:20:22Z</time></trkpt><trkpt lat="43.098814975137756" lon="1.0432300292027556"><ele>344.0</ele><time>2026-04-01T15:20:23Z</time></trkpt><trkpt lat="43.09882017300405" lon="1.0433920957412768"><ele>344.0</ele><time>2026-04-01T15:20:24Z</time></trkpt><trkpt lat="43.098822041506594" lon="1.0435263948950628"><ele>344.0</ele><time>2026-04-01T15:20:25Z</time></trkpt><trkpt lat="43.09882399334665" lon="1.0436460433124246"><ele>344.0</ele><time>2026-04-01T15:20:26Z</time></trkpt><trkpt lat="43.098830497951624" lon="1.0437568790297502"><ele>342.6</ele><time>2026-04-01T15:20:27Z</time></trkpt><trkpt lat="43.09884322605926" lon="1.0439124923675083"><ele>341.2</ele><time>2026-04-01T15:20:29Z</time></trkpt><trkpt lat="43.098846330088946" lon="1.0440470774333337"><ele>339.8</ele><time>2026-04-01T15:20:31Z</time></trkpt><trkpt lat="43.09884868333305" lon="1.0441669890799805"><ele>338.40000000000003</ele><time>2026-04-01T15:20:32Z</time></trkpt><trkpt lat="43.09885133527462" lon="1.0443076611417113"><ele>337.0</ele><time>2026-04-01T15:20:33Z</time></trkpt><trkpt lat="43.09885274190143" lon="1.0444391324994624"><ele>335.0</ele><time>2026-04-01T15:20:34Z</time></trkpt><trkpt lat="43.098841762165726" lon="1.0445778894046507"><ele>333.0</ele><time>2026-04-01T15:20:35Z</time></trkpt><trkpt lat="43.09880677913437" lon="1.0447199468295287"><ele>331.0</ele><time>2026-04-01T15:20:36Z</time></trkpt><trkpt lat="43.09875481267086" lon="1.0448550777887455"><ele>329.0</ele><time>2026-04-01T15:20:37Z</time></trkpt><trkpt lat="43.09868060828716" lon="1.0449656498733442"><ele>327.0</ele><time>2026-04-01T15:20:38Z</time></trkpt><trkpt lat="43.0985810408513" lon="1.0450462947962043"><ele>327.0</ele><time>2026-04-01T15:20:39Z</time></trkpt><trkpt lat="43.0984549785581" lon="1.0451033184677987"><ele>327.0</ele><time>2026-04-01T15:20:40Z</time></trkpt><trkpt lat="43.09831592053619" lon="1.0451443682416597"><ele>327.0</ele><time>2026-04-01T15:20:41Z</time></trkpt><trkpt lat="43.09817301776104" lon="1.0451899924267132"><ele>327.0</ele><time>2026-04-01T15:20:42Z</time></trkpt><trkpt lat="43.09803279118643" lon="1.0452511334400827"><ele>326.25</ele><time>2026-04-01T15:20:43Z</time></trkpt><trkpt lat="43.097904797001725" lon="1.045308709991552"><ele>325.5</ele><time>2026-04-01T15:20:44Z</time></trkpt><trkpt lat="43.09778759827568" lon="1.0453821011740339"><ele>324.75</ele><time>2026-04-01T15:20:45Z</time></trkpt><trkpt lat="43.09769260904648" lon="1.0454982758603315"><ele>324.0</ele><time>2026-04-01T15:20:46Z</time></trkpt><trkpt lat="43.09762867443275" lon="1.0456497879808055"><ele>323.75</ele><time>2026-04-01T15:20:47Z</time></trkpt><trkpt lat="43.09759890321786" lon="1.0458244084149704"><ele>323.5</ele><time>2026-04-01T15:20:48Z</time></trkpt><trkpt lat="43.097600419337496" lon="1.0460149756107486"><ele>323.25</ele><time>2026-04-01T15:20:49Z</time></trkpt><trkpt lat="43.09761194760045" lon="1.0462311575348875"><ele>323.0</ele><time>2026-04-01T15:20:50Z</time></trkpt><trkpt lat="43.09761144556064" lon="1.0464580997864623"><ele>323.33333333333337</ele><time>2026-04-01T15:20:51Z</time></trkpt><trkpt lat="43.097604305414364" lon="1.046685175546478"><ele>323.6666666666667</ele><time>2026-04-01T15:20:52Z</time></trkpt><trkpt lat="43.09759711810575" lon="1.0469039525045603"><ele>324.0</ele><time>2026-04-01T15:20:53Z</time></trkpt><trkpt lat="43.0975887384787" lon="1.0471286635619792"><ele>324.0</ele><time>2026-04-01T15:20:54Z</time></trkpt><trkpt lat="43.09758197604458" lon="1.0473651733413554"><ele>324.0</ele><time>2026-04-01T15:20:55Z</time></trkpt><trkpt lat="43.097576758612036" lon="1.0476051629900252"><ele>324.0</ele><time>2026-04-01T15:20:56Z</time></trkpt><trkpt lat="43.09757018720323" lon="1.047842649706487"><ele>324.3333333333333</ele><time>2026-04-01T15:20:57Z</time></trkpt><trkpt lat="43.09756479740003" lon="1.0480780880307146"><ele>324.66666666666663</ele><time>2026-04-01T15:20:58Z</time></trkpt><trkpt lat="43.09756308167686" lon="1.0483106527044574"><ele>325.0</ele><time>2026-04-01T15:20:59Z</time></trkpt><trkpt lat="43.09757538687429" lon="1.0485405776100492"><ele>325.0</ele><time>2026-04-01T15:21:00Z</time></trkpt><trkpt lat="43.09759969164992" lon="1.0487663115988612"><ele>325.0</ele><time>2026-04-01T15:21:01Z</time></trkpt><trkpt lat="43.097624482366264" lon="1.04899274844798"><ele>325.0</ele><time>2026-04-01T15:21:02Z</time></trkpt><trkpt lat="43.09764745184564" lon="1.0492132055363144"><ele>324.66666666666663</ele><time>2026-04-01T15:21:03Z</time></trkpt><trkpt lat="43.09766027213506" lon="1.0494329803763516"><ele>324.3333333333333</ele><time>2026-04-01T15:21:04Z</time></trkpt><trkpt lat="43.09767748967973" lon="1.0496508918796166"><ele>324.0</ele><time>2026-04-01T15:21:05Z</time></trkpt><trkpt lat="43.097696268211976" lon="1.0498641749747835"><ele>324.6666666666667</ele><time>2026-04-01T15:21:06Z</time></trkpt><trkpt lat="43.09771499478353" lon="1.0500810905794014"><ele>325.33333333333337</ele><time>2026-04-01T15:21:07Z</time></trkpt><trkpt lat="43.09772802375905" lon="1.0503082610486725"><ele>326.0</ele><time>2026-04-01T15:21:08Z</time></trkpt><trkpt lat="43.09772722446117" lon="1.0505330516588647"><ele>326.0</ele><time>2026-04-01T15:21:09Z</time></trkpt><trkpt lat="43.09771223732309" lon="1.0507623133896473"><ele>326.0</ele><time>2026-04-01T15:21:10Z</time></trkpt><trkpt lat="43.097678978465716" lon="1.0509936837482354"><ele>326.0</ele><time>2026-04-01T15:21:11Z</time></trkpt><trkpt lat="43.09763047574503" lon="1.0512146395082373"><ele>325.6666666666667</ele><time>2026-04-01T15:21:12Z</time></trkpt><trkpt lat="43.09757413702397" lon="1.051431053224498"><ele>325.3333333333333</ele><time>2026-04-01T15:21:13Z</time></trkpt><trkpt lat="43.097517251048004" lon="1.0516432905409985"><ele>325.0</ele><time>2026-04-01T15:21:14Z</time></trkpt><trkpt lat="43.097461089882614" lon="1.0518536565227086"><ele>325.75</ele><time>2026-04-01T15:21:15Z</time></trkpt><trkpt lat="43.09740686136534" lon="1.0520513179018045"><ele>326.5</ele><time>2026-04-01T15:21:16Z</time></trkpt><trkpt lat="43.09735837941691" lon="1.05223361242467"><ele>327.25</ele><time>2026-04-01T15:21:17Z</time></trkpt><trkpt lat="43.09732248847594" lon="1.052403703422919"><ele>328.0</ele><time>2026-04-01T15:21:18Z</time></trkpt><trkpt lat="43.09731256937349" lon="1.052568789345014"><ele>328.0</ele><time>2026-04-01T15:21:19Z</time></trkpt><trkpt lat="43.09733381316019" lon="1.0527252223347885"><ele>328.0</ele><time>2026-04-01T15:21:20Z</time></trkpt><trkpt lat="43.09739144165385" lon="1.0528602390658073"><ele>328.0</ele><time>2026-04-01T15:21:21Z</time></trkpt><trkpt lat="43.09747932114765" lon="1.0529773191822775"><ele>328.0</ele><time>2026-04-01T15:21:22Z</time></trkpt><trkpt lat="43.097579964312295" lon="1.0530901146925353"><ele>327.5</ele><time>2026-04-01T15:21:23Z</time></trkpt><trkpt lat="43.09768291286431" lon="1.0532101073611648"><ele>327.0</ele><time>2026-04-01T15:21:24Z</time></trkpt><trkpt lat="43.09778681965177" lon="1.0533404933050623"><ele>326.5</ele><time>2026-04-01T15:21:25Z</time></trkpt><trkpt lat="43.09789191835826" lon="1.0534733893458594"><ele>326.0</ele><time>2026-04-01T15:21:26Z</time></trkpt><trkpt lat="43.09799913366298" lon="1.053608785094212"><ele>326.0</ele><time>2026-04-01T15:21:27Z</time></trkpt><trkpt lat="43.09810913552779" lon="1.0537465486720023"><ele>326.0</ele><time>2026-04-01T15:21:28Z</time></trkpt><trkpt lat="43.09821943091962" lon="1.0538842646044537"><ele>326.0</ele><time>2026-04-01T15:21:29Z</time></trkpt><trkpt lat="43.098328295626644" lon="1.054025847046094"><ele>326.0</ele><time>2026-04-01T15:21:30Z</time></trkpt><trkpt lat="43.09843804018234" lon="1.0541675247450768"><ele>326.0</ele><time>2026-04-01T15:21:31Z</time></trkpt><trkpt lat="43.09854959630771" lon="1.0543130733042527"><ele>326.0</ele><time>2026-04-01T15:21:32Z</time></trkpt><trkpt lat="43.09866227478911" lon="1.054460709416204"><ele>326.0</ele><time>2026-04-01T15:21:33Z</time></trkpt><trkpt lat="43.09877072076774" lon="1.0546098607478032"><ele>326.0</ele><time>2026-04-01T15:21:34Z</time></trkpt><trkpt lat="43.09887815681096" lon="1.054769245108075"><ele>326.0</ele><time>2026-04-01T15:21:35Z</time></trkpt><trkpt lat="43.09897684167172" lon="1.0549371064916355"><ele>326.0</ele><time>2026-04-01T15:21:36Z</time></trkpt><trkpt lat="43.09906653448807" lon="1.055113812607662"><ele>329.0</ele><time>2026-04-01T15:21:37Z</time></trkpt><trkpt lat="43.09914889339041" lon="1.0552932761417508"><ele>332.0</ele><time>2026-04-01T15:21:38Z</time></trkpt><trkpt lat="43.09922271438795" lon="1.055475656758495"><ele>335.0</ele><time>2026-04-01T15:21:39Z</time></trkpt><trkpt lat="43.09928514023588" lon="1.0556590277440447"><ele>332.25</ele><time>2026-04-01T15:21:40Z</time></trkpt><trkpt lat="43.09933808555241" lon="1.0558495152748715"><ele>329.5</ele><time>2026-04-01T15:21:41Z</time></trkpt><trkpt lat="43.099387777198636" lon="1.056035788142456"><ele>326.75</ele><time>2026-04-01T15:21:42Z</time></trkpt><trkpt lat="43.0994366570461" lon="1.0562264426720833"><ele>324.0</ele><time>2026-04-01T15:21:43Z</time></trkpt><trkpt lat="43.09948500846821" lon="1.05641276273186"><ele>324.0</ele><time>2026-04-01T15:21:44Z</time></trkpt><trkpt lat="43.099529726511406" lon="1.0565966119211248"><ele>324.0</ele><time>2026-04-01T15:21:45Z</time></trkpt><trkpt lat="43.09957582795988" lon="1.0567814438141143"><ele>324.0</ele><time>2026-04-01T15:21:46Z</time></trkpt><trkpt lat="43.09961634007921" lon="1.0569626376009205"><ele>324.0</ele><time>2026-04-01T15:21:47Z</time></trkpt><trkpt lat="43.09965138697974" lon="1.0571423103045678"><ele>323.0</ele><time>2026-04-01T15:21:48Z</time></trkpt><trkpt lat="43.099681782691604" lon="1.0573172453065507"><ele>322.0</ele><time>2026-04-01T15:21:49Z</time></trkpt><trkpt lat="43.09971129570504" lon="1.0574904926027686"><ele>321.0</ele><time>2026-04-01T15:21:50Z</time></trkpt><trkpt lat="43.099739121981166" lon="1.0576640309824468"><ele>320.0</ele><time>2026-04-01T15:21:51Z</time></trkpt><trkpt lat="43.099766727088266" lon="1.0578341902561261"><ele>320.0</ele><time>2026-04-01T15:21:52Z</time></trkpt><trkpt lat="43.09979540442788" lon="1.0580070459616728"><ele>320.0</ele><time>2026-04-01T15:21:53Z</time></trkpt><trkpt lat="43.09982605378005" lon="1.0581739014562097"><ele>320.0</ele><time>2026-04-01T15:21:54Z</time></trkpt><trkpt lat="43.09985644025403" lon="1.0583414944549567"><ele>320.0</ele><time>2026-04-01T15:21:55Z</time></trkpt><trkpt lat="43.09988269273911" lon="1.058502188839534"><ele>320.0</ele><time>2026-04-01T15:21:56Z</time></trkpt><trkpt lat="43.09990673197402" lon="1.0586632008306534"><ele>320.0</ele><time>2026-04-01T15:21:57Z</time></trkpt><trkpt lat="43.0999311386496" lon="1.05881998616246"><ele>320.0</ele><time>2026-04-01T15:21:58Z</time></trkpt><trkpt lat="43.099951743417286" lon="1.0589794844939187"><ele>320.0</ele><time>2026-04-01T15:21:59Z</time></trkpt><trkpt lat="43.09996613224814" lon="1.0591399910454664"><ele>321.0</ele><time>2026-04-01T15:22:00Z</time></trkpt><trkpt lat="43.09996600523891" lon="1.0593033729367554"><ele>322.0</ele><time>2026-04-01T15:22:01Z</time></trkpt><trkpt lat="43.09996679201895" lon="1.0594715617903914"><ele>323.0</ele><time>2026-04-01T15:22:02Z</time></trkpt><trkpt lat="43.09996777480359" lon="1.0596377529588519"><ele>324.0</ele><time>2026-04-01T15:22:03Z</time></trkpt><trkpt lat="43.09996962124077" lon="1.0598063180962307"><ele>324.0</ele><time>2026-04-01T15:22:04Z</time></trkpt><trkpt lat="43.09997394010461" lon="1.0599692176399254"><ele>324.0</ele><time>2026-04-01T15:22:05Z</time></trkpt><trkpt lat="43.09998004120655" lon="1.0601249033444589"><ele>324.0</ele><time>2026-04-01T15:22:06Z</time></trkpt><trkpt lat="43.09998369855267" lon="1.060279655303094"><ele>324.0</ele><time>2026-04-01T15:22:07Z</time></trkpt><trkpt lat="43.10000827166376" lon="1.0604379332371932"><ele>324.0</ele><time>2026-04-01T15:22:08Z</time></trkpt><trkpt lat="43.100042770113824" lon="1.0605868308118842"><ele>324.0</ele><time>2026-04-01T15:22:09Z</time></trkpt><trkpt lat="43.10008858315285" lon="1.0607306864675714"><ele>324.0</ele><time>2026-04-01T15:22:10Z</time></trkpt><trkpt lat="43.10013041276363" lon="1.0608751255292832"><ele>324.0</ele><time>2026-04-01T15:22:11Z</time></trkpt><trkpt lat="43.10017188792028" lon="1.0610199320497526"><ele>324.0</ele><time>2026-04-01T15:22:12Z</time></trkpt><trkpt lat="43.10021554707299" lon="1.0611648543183885"><ele>324.0</ele><time>2026-04-01T15:22:13Z</time></trkpt><trkpt lat="43.10025213372077" lon="1.0613069809501872"><ele>324.0</ele><time>2026-04-01T15:22:14Z</time></trkpt><trkpt lat="43.10029446434758" lon="1.0614387189202261"><ele>324.0</ele><time>2026-04-01T15:22:15Z</time></trkpt><trkpt lat="43.10034642824953" lon="1.0615613267703932"><ele>324.0</ele><time>2026-04-01T15:22:16Z</time></trkpt><trkpt lat="43.100412807933125" lon="1.0616724255518872"><ele>324.0</ele><time>2026-04-01T15:22:17Z</time></trkpt><trkpt lat="43.100492227337945" lon="1.061773493895497"><ele>324.0</ele><time>2026-04-01T15:22:18Z</time></trkpt><trkpt lat="43.100576328857215" lon="1.0618622570729122"><ele>324.0</ele><time>2026-04-01T15:22:19Z</time></trkpt><trkpt lat="43.100656651632164" lon="1.0619478424521553"><ele>324.0</ele><time>2026-04-01T15:22:20Z</time></trkpt><trkpt lat="43.1007333157622" lon="1.0620399002679184"><ele>324.0</ele><time>2026-04-01T15:22:21Z</time></trkpt><trkpt lat="43.1008017985953" lon="1.0621280743807175"><ele>324.2</ele><time>2026-04-01T15:22:22Z</time></trkpt><trkpt lat="43.10086394075347" lon="1.0622092315355462"><ele>324.4</ele><time>2026-04-01T15:22:23Z</time></trkpt><trkpt lat="43.10089994949886" lon="1.0623107457515106"><ele>324.6</ele><time>2026-04-01T15:22:24Z</time></trkpt><trkpt lat="43.10093785928384" lon="1.062428128873023"><ele>324.8</ele><time>2026-04-01T15:22:25Z</time></trkpt><trkpt lat="43.100972834832" lon="1.0625597953324708"><ele>325.0</ele><time>2026-04-01T15:22:26Z</time></trkpt><trkpt lat="43.10101296888983" lon="1.0627095082789557"><ele>325.0</ele><time>2026-04-01T15:22:27Z</time></trkpt><trkpt lat="43.101067448103045" lon="1.0628533642173292"><ele>325.0</ele><time>2026-04-01T15:22:28Z</time></trkpt><trkpt lat="43.10110289420727" lon="1.0630160265170783"><ele>325.0</ele><time>2026-04-01T15:22:29Z</time></trkpt><trkpt lat="43.10114473076825" lon="1.0631824578651685"><ele>325.0</ele><time>2026-04-01T15:22:30Z</time></trkpt><trkpt lat="43.10118913828245" lon="1.063353167041643"><ele>325.0</ele><time>2026-04-01T15:22:31Z</time></trkpt><trkpt lat="43.10123563346263" lon="1.063520070184303"><ele>325.0</ele><time>2026-04-01T15:22:32Z</time></trkpt><trkpt lat="43.1012815364221" lon="1.0636889526482203"><ele>325.0</ele><time>2026-04-01T15:22:33Z</time></trkpt><trkpt lat="43.101320674523606" lon="1.063861362499524"><ele>325.0</ele><time>2026-04-01T15:22:34Z</time></trkpt><trkpt lat="43.10135391369648" lon="1.0640412792760618"><ele>324.25</ele><time>2026-04-01T15:22:35Z</time></trkpt><trkpt lat="43.10137517745758" lon="1.064227294965225"><ele>323.5</ele><time>2026-04-01T15:22:36Z</time></trkpt><trkpt lat="43.10138026712958" lon="1.0644167247999434"><ele>322.75</ele><time>2026-04-01T15:22:37Z</time></trkpt><trkpt lat="43.101349306191786" lon="1.0645957264197914"><ele>322.0</ele><time>2026-04-01T15:22:38Z</time></trkpt><trkpt lat="43.10132631915146" lon="1.0647718544222127"><ele>322.0</ele><time>2026-04-01T15:22:39Z</time></trkpt><trkpt lat="43.10129719439812" lon="1.0649402218949886"><ele>322.0</ele><time>2026-04-01T15:22:40Z</time></trkpt><trkpt lat="43.10127458106393" lon="1.0651125374120962"><ele>322.0</ele><time>2026-04-01T15:22:41Z</time></trkpt><trkpt lat="43.10123643481836" lon="1.0652770025934586"><ele>322.0</ele><time>2026-04-01T15:22:42Z</time></trkpt><trkpt lat="43.10120008568934" lon="1.0654363447896165"><ele>322.25</ele><time>2026-04-01T15:22:43Z</time></trkpt><trkpt lat="43.10116201331837" lon="1.0655917873363216"><ele>322.5</ele><time>2026-04-01T15:22:44Z</time></trkpt><trkpt lat="43.10111622437235" lon="1.0657449344459036"><ele>322.75</ele><time>2026-04-01T15:22:45Z</time></trkpt><trkpt lat="43.101066919732276" lon="1.0658992428142116"><ele>323.0</ele><time>2026-04-01T15:22:46Z</time></trkpt><trkpt lat="43.10101642899652" lon="1.06605320297598"><ele>323.5</ele><time>2026-04-01T15:22:47Z</time></trkpt><trkpt lat="43.10096787020441" lon="1.0662068265129523"><ele>324.0</ele><time>2026-04-01T15:22:48Z</time></trkpt><trkpt lat="43.10091973986632" lon="1.0663547701121792"><ele>324.5</ele><time>2026-04-01T15:22:49Z</time></trkpt><trkpt lat="43.100868738001516" lon="1.0665039850376317"><ele>325.0</ele><time>2026-04-01T15:22:50Z</time></trkpt><trkpt lat="43.100808488592506" lon="1.0666450969130619"><ele>325.25</ele><time>2026-04-01T15:22:51Z</time></trkpt><trkpt lat="43.1007245697971" lon="1.0667605459178255"><ele>325.5</ele><time>2026-04-01T15:22:52Z</time></trkpt><trkpt lat="43.10063396936433" lon="1.0668586865166603"><ele>325.75</ele><time>2026-04-01T15:22:53Z</time></trkpt><trkpt lat="43.10053372490503" lon="1.0669392374814104"><ele>326.0</ele><time>2026-04-01T15:22:54Z</time></trkpt><trkpt lat="43.10043635682789" lon="1.0670334430619097"><ele>326.0</ele><time>2026-04-01T15:22:55Z</time></trkpt><trkpt lat="43.10033033858833" lon="1.067096972522502"><ele>326.0</ele><time>2026-04-01T15:22:56Z</time></trkpt><trkpt lat="43.100223875537196" lon="1.0671785908221003"><ele>326.0</ele><time>2026-04-01T15:22:57Z</time></trkpt><trkpt lat="43.10012613917645" lon="1.06727476062888"><ele>326.0</ele><time>2026-04-01T15:22:58Z</time></trkpt><trkpt lat="43.10004197132691" lon="1.067391329993546"><ele>326.75</ele><time>2026-04-01T15:22:59Z</time></trkpt><trkpt lat="43.09997126635825" lon="1.0675253349012124"><ele>327.5</ele><time>2026-04-01T15:23:00Z</time></trkpt><trkpt lat="43.099911671111464" lon="1.0676807938996782"><ele>328.25</ele><time>2026-04-01T15:23:01Z</time></trkpt><trkpt lat="43.09986723362815" lon="1.067844636741956"><ele>329.0</ele><time>2026-04-01T15:23:02Z</time></trkpt><trkpt lat="43.09983113076805" lon="1.06801301664789"><ele>329.0</ele><time>2026-04-01T15:23:03Z</time></trkpt><trkpt lat="43.09980118277605" lon="1.068190139936884"><ele>329.0</ele><time>2026-04-01T15:23:04Z</time></trkpt><trkpt lat="43.09977969381237" lon="1.068365054746821"><ele>329.0</ele><time>2026-04-01T15:23:05Z</time></trkpt><trkpt lat="43.09976983048126" lon="1.06853254550416"><ele>329.0</ele><time>2026-04-01T15:23:06Z</time></trkpt><trkpt lat="43.099769055419024" lon="1.0686933697393886"><ele>331.25</ele><time>2026-04-01T15:23:07Z</time></trkpt><trkpt lat="43.09978544606857" lon="1.0688480379065677"><ele>333.5</ele><time>2026-04-01T15:23:08Z</time></trkpt><trkpt lat="43.09981007238649" lon="1.068999605872062"><ele>335.75</ele><time>2026-04-01T15:23:09Z</time></trkpt><trkpt lat="43.099829977463784" lon="1.0691656434969783"><ele>338.0</ele><time>2026-04-01T15:23:10Z</time></trkpt><trkpt lat="43.09983944457644" lon="1.0693345972571096"><ele>340.75</ele><time>2026-04-01T15:23:11Z</time></trkpt><trkpt lat="43.09984764109076" lon="1.069502655768044"><ele>343.5</ele><time>2026-04-01T15:23:12Z</time></trkpt><trkpt lat="43.09985762707967" lon="1.0696706863312089"><ele>346.25</ele><time>2026-04-01T15:23:13Z</time></trkpt><trkpt lat="43.099868250023476" lon="1.069841573854367"><ele>349.0</ele><time>2026-04-01T15:23:14Z</time></trkpt><trkpt lat="43.09987612744351" lon="1.0700068116613908"><ele>350.25</ele><time>2026-04-01T15:23:15Z</time></trkpt><trkpt lat="43.09988209878382" lon="1.070169349544275"><ele>351.5</ele><time>2026-04-01T15:23:16Z</time></trkpt><trkpt lat="43.09989037278138" lon="1.07032918307242"><ele>352.75</ele><time>2026-04-01T15:23:17Z</time></trkpt><trkpt lat="43.0999031980845" lon="1.0704909268173035"><ele>354.0</ele><time>2026-04-01T15:23:18Z</time></trkpt><trkpt lat="43.09991592002845" lon="1.0706576104568477"><ele>355.25</ele><time>2026-04-01T15:23:19Z</time></trkpt><trkpt lat="43.099925905623934" lon="1.0708290391479658"><ele>356.5</ele><time>2026-04-01T15:23:20Z</time></trkpt><trkpt lat="43.099935761856386" lon="1.0710024350715546"><ele>357.75</ele><time>2026-04-01T15:23:21Z</time></trkpt><trkpt lat="43.099943884761906" lon="1.0711732124461162"><ele>359.0</ele><time>2026-04-01T15:23:22Z</time></trkpt><trkpt lat="43.09995319315505" lon="1.0713398382453747"><ele>359.0</ele><time>2026-04-01T15:23:23Z</time></trkpt><trkpt lat="43.09996093165962" lon="1.0714954607793712"><ele>359.0</ele><time>2026-04-01T15:23:24Z</time></trkpt><trkpt lat="43.099974520651365" lon="1.0716523065437626"><ele>359.0</ele><time>2026-04-01T15:23:25Z</time></trkpt><trkpt lat="43.099988859373056" lon="1.0718088124799237"><ele>359.0</ele><time>2026-04-01T15:23:26Z</time></trkpt><trkpt lat="43.10000939804907" lon="1.0719665089062491"><ele>360.0</ele><time>2026-04-01T15:23:27Z</time></trkpt><trkpt lat="43.10003736406826" lon="1.0721256341066179"><ele>361.0</ele><time>2026-04-01T15:23:28Z</time></trkpt><trkpt lat="43.10008154204218" lon="1.0722924057829017"><ele>362.0</ele><time>2026-04-01T15:23:29Z</time></trkpt><trkpt lat="43.100145988454855" lon="1.0724546069539334"><ele>363.0</ele><time>2026-04-01T15:23:30Z</time></trkpt><trkpt lat="43.10021858243746" lon="1.0726098557501198"><ele>363.5</ele><time>2026-04-01T15:23:31Z</time></trkpt><trkpt lat="43.10028991800049" lon="1.0727595911657153"><ele>364.0</ele><time>2026-04-01T15:23:32Z</time></trkpt><trkpt lat="43.1003545298612" lon="1.0729125914464337"><ele>364.5</ele><time>2026-04-01T15:23:33Z</time></trkpt><trkpt lat="43.100417513414186" lon="1.0730648692168594"><ele>365.0</ele><time>2026-04-01T15:23:34Z</time></trkpt><trkpt lat="43.1004844568355" lon="1.0732134443505121"><ele>364.5</ele><time>2026-04-01T15:23:35Z</time></trkpt><trkpt lat="43.10056364808061" lon="1.0733511690591204"><ele>364.0</ele><time>2026-04-01T15:23:36Z</time></trkpt><trkpt lat="43.10066476352071" lon="1.0734671039887242"><ele>363.5</ele><time>2026-04-01T15:23:37Z</time></trkpt><trkpt lat="43.10077805856089" lon="1.0735561402476923"><ele>363.0</ele><time>2026-04-01T15:23:38Z</time></trkpt><trkpt lat="43.10090432012281" lon="1.0736175423481666"><ele>364.75</ele><time>2026-04-01T15:23:39Z</time></trkpt><trkpt lat="43.10103729041132" lon="1.0736620901390268"><ele>366.5</ele><time>2026-04-01T15:23:40Z</time></trkpt><trkpt lat="43.10116721971623" lon="1.0737010990706553"><ele>368.25</ele><time>2026-04-01T15:23:41Z</time></trkpt><trkpt lat="43.101306876919764" lon="1.0737550995485452"><ele>370.0</ele><time>2026-04-01T15:23:42Z</time></trkpt><trkpt lat="43.10144143952519" lon="1.073797987842271"><ele>370.0</ele><time>2026-04-01T15:23:43Z</time></trkpt><trkpt lat="43.10157756730691" lon="1.0738246538519602"><ele>370.0</ele><time>2026-04-01T15:23:44Z</time></trkpt><trkpt lat="43.10171640391899" lon="1.0738480790360674"><ele>370.0</ele><time>2026-04-01T15:23:45Z</time></trkpt><trkpt lat="43.10185175859947" lon="1.073889053038962"><ele>370.0</ele><time>2026-04-01T15:23:46Z</time></trkpt><trkpt lat="43.10198416987802" lon="1.0739606471473286"><ele>370.5</ele><time>2026-04-01T15:23:47Z</time></trkpt><trkpt lat="43.10210840586694" lon="1.074050001361136"><ele>371.0</ele><time>2026-04-01T15:23:48Z</time></trkpt><trkpt lat="43.1022375636581" lon="1.0741342116265942"><ele>371.5</ele><time>2026-04-01T15:23:49Z</time></trkpt><trkpt lat="43.10236251058513" lon="1.0742099849267945"><ele>372.0</ele><time>2026-04-01T15:23:50Z</time></trkpt><trkpt lat="43.10248167543049" lon="1.0742876800740884"><ele>374.0</ele><time>2026-04-01T15:23:51Z</time></trkpt><trkpt lat="43.10259338499777" lon="1.0743732162310697"><ele>376.0</ele><time>2026-04-01T15:23:52Z</time></trkpt><trkpt lat="43.10267920730388" lon="1.0744826125038662"><ele>378.0</ele><time>2026-04-01T15:23:53Z</time></trkpt><trkpt lat="43.10273157639031" lon="1.0746144013138659"><ele>380.0</ele><time>2026-04-01T15:23:54Z</time></trkpt><trkpt lat="43.10272301577976" lon="1.0747726445784578"><ele>380.0</ele><time>2026-04-01T15:23:55Z</time></trkpt><trkpt lat="43.10272559648407" lon="1.0749427220725076"><ele>380.0</ele><time>2026-04-01T15:23:56Z</time></trkpt><trkpt lat="43.10272776276033" lon="1.0751252156631608"><ele>380.0</ele><time>2026-04-01T15:23:57Z</time></trkpt><trkpt lat="43.10274521597843" lon="1.0752986982082189"><ele>380.0</ele><time>2026-04-01T15:23:58Z</time></trkpt><trkpt lat="43.102765729600954" lon="1.0754700929862386"><ele>380.0</ele><time>2026-04-01T15:23:59Z</time></trkpt><trkpt lat="43.1028046498948" lon="1.0756463926584756"><ele>380.0</ele><time>2026-04-01T15:24:00Z</time></trkpt><trkpt lat="43.10285821159125" lon="1.0758318125547963"><ele>380.0</ele><time>2026-04-01T15:24:01Z</time></trkpt><trkpt lat="43.102914207789965" lon="1.0760165850273398"><ele>380.0</ele><time>2026-04-01T15:24:02Z</time></trkpt><trkpt lat="43.10296043729299" lon="1.0761763367646204"><ele>380.5</ele><time>2026-04-01T15:24:03Z</time></trkpt><trkpt lat="43.10300738041219" lon="1.0763351628497995"><ele>381.0</ele><time>2026-04-01T15:24:04Z</time></trkpt><trkpt lat="43.103056620229886" lon="1.0765007201412737"><ele>381.5</ele><time>2026-04-01T15:24:05Z</time></trkpt><trkpt lat="43.10310189861053" lon="1.0766721648435749"><ele>382.0</ele><time>2026-04-01T15:24:06Z</time></trkpt><trkpt lat="43.10315790968983" lon="1.0768484147521522"><ele>382.75</ele><time>2026-04-01T15:24:07Z</time></trkpt><trkpt lat="43.10321190827237" lon="1.0770248097027462"><ele>383.5</ele><time>2026-04-01T15:24:08Z</time></trkpt><trkpt lat="43.10326426021962" lon="1.0772021445084154"><ele>384.25</ele><time>2026-04-01T15:24:09Z</time></trkpt><trkpt lat="43.103314700948935" lon="1.0773790970013954"><ele>385.0</ele><time>2026-04-01T15:24:10Z</time></trkpt><trkpt lat="43.10336173455743" lon="1.0775421011495556"><ele>386.4</ele><time>2026-04-01T15:24:11Z</time></trkpt><trkpt lat="43.10337580236483" lon="1.077701133591613"><ele>387.8</ele><time>2026-04-01T15:24:12Z</time></trkpt><trkpt lat="43.1033956753132" lon="1.077842833285483"><ele>389.20000000000005</ele><time>2026-04-01T15:24:13Z</time></trkpt><trkpt lat="43.103423239948036" lon="1.077971738411628"><ele>390.6</ele><time>2026-04-01T15:24:14Z</time></trkpt><trkpt lat="43.10342821074386" lon="1.0780983008137426"><ele>392.0</ele><time>2026-04-01T15:24:15Z</time></trkpt><trkpt lat="43.103431721158685" lon="1.0781978443141975"><ele>392.20000000000005</ele><time>2026-04-01T15:24:16Z</time></trkpt><trkpt lat="43.10343623193644" lon="1.0783348801266888"><ele>392.4</ele><time>2026-04-01T15:24:18Z</time></trkpt><trkpt lat="43.10344747021512" lon="1.078444404721365"><ele>392.6</ele><time>2026-04-01T15:24:34Z</time></trkpt><trkpt lat="43.10346626745156" lon="1.078576268517632"><ele>392.79999999999995</ele><time>2026-04-01T15:24:35Z</time></trkpt><trkpt lat="43.10348665113032" lon="1.0787051419111948"><ele>393.0</ele><time>2026-04-01T15:24:36Z</time></trkpt><trkpt lat="43.10352069386233" lon="1.0788305408276326"><ele>393.0</ele><time>2026-04-01T15:24:37Z</time></trkpt><trkpt lat="43.103575885719124" lon="1.0789705813595607"><ele>393.0</ele><time>2026-04-01T15:24:38Z</time></trkpt><trkpt lat="43.10364574867142" lon="1.0791174325127557"><ele>393.0</ele><time>2026-04-01T15:24:39Z</time></trkpt><trkpt lat="43.10372016701205" lon="1.0792702234470717"><ele>393.0</ele><time>2026-04-01T15:24:40Z</time></trkpt><trkpt lat="43.103800452041455" lon="1.0794306351548073"><ele>392.5</ele><time>2026-04-01T15:24:41Z</time></trkpt><trkpt lat="43.103880508180026" lon="1.0795974602975242"><ele>392.0</ele><time>2026-04-01T15:24:42Z</time></trkpt><trkpt lat="43.103959075844045" lon="1.0797652205202053"><ele>391.5</ele><time>2026-04-01T15:24:43Z</time></trkpt><trkpt lat="43.10403888378497" lon="1.0799299208882582"><ele>391.0</ele><time>2026-04-01T15:24:44Z</time></trkpt><trkpt lat="43.10411874430004" lon="1.08009503964075"><ele>390.25</ele><time>2026-04-01T15:24:45Z</time></trkpt><trkpt lat="43.10420190062531" lon="1.080263051198819"><ele>389.5</ele><time>2026-04-01T15:24:46Z</time></trkpt><trkpt lat="43.104284036540605" lon="1.080428668652445"><ele>388.75</ele><time>2026-04-01T15:24:47Z</time></trkpt><trkpt lat="43.10436385970414" lon="1.0805914896452549"><ele>388.0</ele><time>2026-04-01T15:24:48Z</time></trkpt><trkpt lat="43.10443948440102" lon="1.0807556256596478"><ele>388.0</ele><time>2026-04-01T15:24:49Z</time></trkpt><trkpt lat="43.10450990769952" lon="1.0809223136884023"><ele>388.0</ele><time>2026-04-01T15:24:50Z</time></trkpt><trkpt lat="43.10454548302884" lon="1.081110285623065"><ele>388.0</ele><time>2026-04-01T15:24:51Z</time></trkpt><trkpt lat="43.10457394968424" lon="1.0813003950991285"><ele>388.0</ele><time>2026-04-01T15:24:52Z</time></trkpt><trkpt lat="43.10457090915885" lon="1.0814952938413873"><ele>387.33333333333337</ele><time>2026-04-01T15:24:53Z</time></trkpt><trkpt lat="43.104568967149426" lon="1.0817010818635835"><ele>386.66666666666663</ele><time>2026-04-01T15:24:54Z</time></trkpt><trkpt lat="43.104564546333336" lon="1.0819116338077037"><ele>386.0</ele><time>2026-04-01T15:24:55Z</time></trkpt><trkpt lat="43.104559464530716" lon="1.082123295691194"><ele>386.0</ele><time>2026-04-01T15:24:56Z</time></trkpt><trkpt lat="43.104567131007094" lon="1.0823376873543173"><ele>386.0</ele><time>2026-04-01T15:24:57Z</time></trkpt><trkpt lat="43.104557427660225" lon="1.0825537618899337"><ele>386.0</ele><time>2026-04-01T15:24:58Z</time></trkpt><trkpt lat="43.104551219347265" lon="1.082771241369286"><ele>387.0</ele><time>2026-04-01T15:24:59Z</time></trkpt><trkpt lat="43.10454573173934" lon="1.0829956467829847"><ele>388.0</ele><time>2026-04-01T15:25:00Z</time></trkpt><trkpt lat="43.104540195798144" lon="1.083226113177616"><ele>389.0</ele><time>2026-04-01T15:25:01Z</time></trkpt><trkpt lat="43.10453653681693" lon="1.0834559745208177"><ele>389.0</ele><time>2026-04-01T15:25:02Z</time></trkpt><trkpt lat="43.1045346796053" lon="1.0836932102604335"><ele>389.0</ele><time>2026-04-01T15:25:03Z</time></trkpt><trkpt lat="43.10453321835857" lon="1.0839281212638077"><ele>389.0</ele><time>2026-04-01T15:25:04Z</time></trkpt><trkpt lat="43.104537413838784" lon="1.0841608986227884"><ele>389.0</ele><time>2026-04-01T15:25:05Z</time></trkpt><trkpt lat="43.104549305296246" lon="1.0843945225860785"><ele>389.0</ele><time>2026-04-01T15:25:06Z</time></trkpt><trkpt lat="43.10456255656319" lon="1.0846279773546925"><ele>389.0</ele><time>2026-04-01T15:25:07Z</time></trkpt><trkpt lat="43.10456573870608" lon="1.0848587020048877"><ele>389.66666666666663</ele><time>2026-04-01T15:25:08Z</time></trkpt><trkpt lat="43.10457812127564" lon="1.085093490391639"><ele>390.33333333333337</ele><time>2026-04-01T15:25:09Z</time></trkpt><trkpt lat="43.10460180700951" lon="1.0853267094143533"><ele>391.0</ele><time>2026-04-01T15:25:10Z</time></trkpt><trkpt lat="43.1046314650143" lon="1.085553391268084"><ele>391.0</ele><time>2026-04-01T15:25:11Z</time></trkpt><trkpt lat="43.1046603617937" lon="1.0857736471621158"><ele>391.0</ele><time>2026-04-01T15:25:12Z</time></trkpt><trkpt lat="43.10468069911337" lon="1.0859888387716672"><ele>391.0</ele><time>2026-04-01T15:25:13Z</time></trkpt><trkpt lat="43.10469492748051" lon="1.0862013133601554"><ele>391.0</ele><time>2026-04-01T15:25:14Z</time></trkpt><trkpt lat="43.10470809758264" lon="1.0864123948027264"><ele>391.0</ele><time>2026-04-01T15:25:15Z</time></trkpt><trkpt lat="43.10471762239656" lon="1.0866217422821838"><ele>391.0</ele><time>2026-04-01T15:25:16Z</time></trkpt><trkpt lat="43.104722755148394" lon="1.086830624472053"><ele>391.33333333333337</ele><time>2026-04-01T15:25:17Z</time></trkpt><trkpt lat="43.10470779753604" lon="1.0870448584577854"><ele>391.66666666666663</ele><time>2026-04-01T15:25:18Z</time></trkpt><trkpt lat="43.104699921790676" lon="1.0872732821205884"><ele>392.0</ele><time>2026-04-01T15:25:19Z</time></trkpt><trkpt lat="43.10468811704611" lon="1.087497854542942"><ele>392.5</ele><time>2026-04-01T15:25:20Z</time></trkpt><trkpt lat="43.10469351299445" lon="1.0877018155797527"><ele>393.0</ele><time>2026-04-01T15:25:21Z</time></trkpt><trkpt lat="43.10468785346345" lon="1.0878896846320703"><ele>393.5</ele><time>2026-04-01T15:25:22Z</time></trkpt><trkpt lat="43.104689803685396" lon="1.0880728783848606"><ele>394.0</ele><time>2026-04-01T15:25:23Z</time></trkpt><trkpt lat="43.10469686039583" lon="1.0882584102543567"><ele>394.5</ele><time>2026-04-01T15:25:24Z</time></trkpt><trkpt lat="43.104711714329156" lon="1.088444926369908"><ele>395.0</ele><time>2026-04-01T15:25:25Z</time></trkpt><trkpt lat="43.10472934981064" lon="1.0886355458990502"><ele>395.5</ele><time>2026-04-01T15:25:26Z</time></trkpt><trkpt lat="43.10475315553256" lon="1.0888340975240847"><ele>396.0</ele><time>2026-04-01T15:25:27Z</time></trkpt><trkpt lat="43.104781251678084" lon="1.0890319117038008"><ele>396.25</ele><time>2026-04-01T15:25:28Z</time></trkpt><trkpt lat="43.10480850397183" lon="1.0892316122802341"><ele>396.5</ele><time>2026-04-01T15:25:29Z</time></trkpt><trkpt lat="43.10483541524578" lon="1.0894245036860217"><ele>396.75</ele><time>2026-04-01T15:25:30Z</time></trkpt><trkpt lat="43.10487330666718" lon="1.0896063425504576"><ele>397.0</ele><time>2026-04-01T15:25:31Z</time></trkpt><trkpt lat="43.104886315047835" lon="1.0897921812067493"><ele>397.25</ele><time>2026-04-01T15:25:32Z</time></trkpt><trkpt lat="43.104919392921374" lon="1.0899779145056616"><ele>397.5</ele><time>2026-04-01T15:25:33Z</time></trkpt><trkpt lat="43.10493938772686" lon="1.0901671700043745"><ele>397.75</ele><time>2026-04-01T15:25:34Z</time></trkpt><trkpt lat="43.10495928535866" lon="1.0903506208838873"><ele>398.0</ele><time>2026-04-01T15:25:35Z</time></trkpt><trkpt lat="43.104982696454925" lon="1.0905261073264394"><ele>398.0</ele><time>2026-04-01T15:25:36Z</time></trkpt><trkpt lat="43.10502183841404" lon="1.090688964061951"><ele>398.0</ele><time>2026-04-01T15:25:37Z</time></trkpt><trkpt lat="43.10508591938207" lon="1.0908441383628507"><ele>398.0</ele><time>2026-04-01T15:25:38Z</time></trkpt><trkpt lat="43.10517206997907" lon="1.0909911781649413"><ele>398.0</ele><time>2026-04-01T15:25:39Z</time></trkpt><trkpt lat="43.105255494386086" lon="1.091147768555168"><ele>397.5</ele><time>2026-04-01T15:25:40Z</time></trkpt><trkpt lat="43.105319056981074" lon="1.0913249493945998"><ele>397.0</ele><time>2026-04-01T15:25:41Z</time></trkpt><trkpt lat="43.105368151982695" lon="1.091512673938418"><ele>396.5</ele><time>2026-04-01T15:25:42Z</time></trkpt><trkpt lat="43.105417476753935" lon="1.0916972597441845"><ele>396.0</ele><time>2026-04-01T15:25:43Z</time></trkpt><trkpt lat="43.10546172096725" lon="1.091873338671254"><ele>394.0</ele><time>2026-04-01T15:25:44Z</time></trkpt><trkpt lat="43.10550435494183" lon="1.0920567162512265"><ele>392.0</ele><time>2026-04-01T15:25:45Z</time></trkpt><trkpt lat="43.10555262097508" lon="1.0922561760328364"><ele>390.0</ele><time>2026-04-01T15:25:46Z</time></trkpt><trkpt lat="43.10559978615039" lon="1.0924602078872712"><ele>389.0</ele><time>2026-04-01T15:25:47Z</time></trkpt><trkpt lat="43.10564317131956" lon="1.0926629020627379"><ele>388.0</ele><time>2026-04-01T15:25:48Z</time></trkpt><trkpt lat="43.10568506135772" lon="1.092864794167958"><ele>387.0</ele><time>2026-04-01T15:25:49Z</time></trkpt><trkpt lat="43.10573057939048" lon="1.0930717830163343"><ele>386.33333333333337</ele><time>2026-04-01T15:25:50Z</time></trkpt><trkpt lat="43.10577995527689" lon="1.093282972722922"><ele>385.6666666666667</ele><time>2026-04-01T15:25:51Z</time></trkpt><trkpt lat="43.105824908969396" lon="1.093495711701842"><ele>385.0</ele><time>2026-04-01T15:25:52Z</time></trkpt><trkpt lat="43.10586231628961" lon="1.0937065823385883"><ele>385.0</ele><time>2026-04-01T15:25:53Z</time></trkpt><trkpt lat="43.10589632793366" lon="1.0939225515817474"><ele>385.0</ele><time>2026-04-01T15:25:54Z</time></trkpt><trkpt lat="43.10592799127651" lon="1.0941312490627624"><ele>385.0</ele><time>2026-04-01T15:25:55Z</time></trkpt><trkpt lat="43.10596623598035" lon="1.0943336142096727"><ele>384.6666666666667</ele><time>2026-04-01T15:25:56Z</time></trkpt><trkpt lat="43.10601661686478" lon="1.0945370792882525"><ele>384.33333333333337</ele><time>2026-04-01T15:25:57Z</time></trkpt><trkpt lat="43.106078542806216" lon="1.0947513691906585"><ele>384.0</ele><time>2026-04-01T15:25:58Z</time></trkpt><trkpt lat="43.10614527570577" lon="1.0949689385322037"><ele>384.0</ele><time>2026-04-01T15:25:59Z</time></trkpt><trkpt lat="43.10621212072835" lon="1.0951921641369906"><ele>384.0</ele><time>2026-04-01T15:26:00Z</time></trkpt><trkpt lat="43.10627365141703" lon="1.0954141306991756"><ele>384.0</ele><time>2026-04-01T15:26:01Z</time></trkpt><trkpt lat="43.10633285643643" lon="1.0956411922457754"><ele>382.6666666666667</ele><time>2026-04-01T15:26:02Z</time></trkpt><trkpt lat="43.106387387671234" lon="1.095866290400943"><ele>381.33333333333337</ele><time>2026-04-01T15:26:03Z</time></trkpt><trkpt lat="43.10644257421625" lon="1.0960932573097866"><ele>380.0</ele><time>2026-04-01T15:26:04Z</time></trkpt><trkpt lat="43.10649847309387" lon="1.0963152641291305"><ele>380.0</ele><time>2026-04-01T15:26:05Z</time></trkpt><trkpt lat="43.10656145433662" lon="1.0965322673769669"><ele>380.0</ele><time>2026-04-01T15:26:06Z</time></trkpt><trkpt lat="43.10663221995516" lon="1.0967360189922166"><ele>380.0</ele><time>2026-04-01T15:26:07Z</time></trkpt><trkpt lat="43.1067020617844" lon="1.0969427203426683"><ele>380.0</ele><time>2026-04-01T15:26:08Z</time></trkpt><trkpt lat="43.106769178998626" lon="1.0971488323937044"><ele>380.0</ele><time>2026-04-01T15:26:09Z</time></trkpt><trkpt lat="43.10683592959224" lon="1.0973538243047387"><ele>380.0</ele><time>2026-04-01T15:26:10Z</time></trkpt><trkpt lat="43.10689886550383" lon="1.0975641682444865"><ele>380.0</ele><time>2026-04-01T15:26:11Z</time></trkpt><trkpt lat="43.106948894622285" lon="1.0977882653556832"><ele>380.0</ele><time>2026-04-01T15:26:12Z</time></trkpt><trkpt lat="43.10697746060867" lon="1.0980198887636665"><ele>380.0</ele><time>2026-04-01T15:26:13Z</time></trkpt><trkpt lat="43.10695580025611" lon="1.0982541124214698"><ele>380.0</ele><time>2026-04-01T15:26:14Z</time></trkpt><trkpt lat="43.10694359347762" lon="1.0984859583149449"><ele>380.0</ele><time>2026-04-01T15:26:15Z</time></trkpt><trkpt lat="43.10693636012238" lon="1.0987124898467817"><ele>380.0</ele><time>2026-04-01T15:26:16Z</time></trkpt><trkpt lat="43.1069225809349" lon="1.098933045396206"><ele>381.33333333333337</ele><time>2026-04-01T15:26:17Z</time></trkpt><trkpt lat="43.10692079532978" lon="1.099167009576436"><ele>382.6666666666667</ele><time>2026-04-01T15:26:18Z</time></trkpt><trkpt lat="43.106930315175454" lon="1.099410222244688"><ele>384.0</ele><time>2026-04-01T15:26:19Z</time></trkpt><trkpt lat="43.10694658006466" lon="1.0996497271331003"><ele>384.0</ele><time>2026-04-01T15:26:20Z</time></trkpt><trkpt lat="43.10696392374494" lon="1.0998892807018597"><ele>384.0</ele><time>2026-04-01T15:26:21Z</time></trkpt><trkpt lat="43.1069897377856" lon="1.100128370599586"><ele>384.0</ele><time>2026-04-01T15:26:22Z</time></trkpt><trkpt lat="43.10703467376299" lon="1.1003620451940082"><ele>384.66666666666663</ele><time>2026-04-01T15:26:23Z</time></trkpt><trkpt lat="43.10709816554766" lon="1.1005941485842559"><ele>385.3333333333333</ele><time>2026-04-01T15:26:24Z</time></trkpt><trkpt lat="43.107161131851676" lon="1.1008286200649184"><ele>386.0</ele><time>2026-04-01T15:26:25Z</time></trkpt><trkpt lat="43.10721510045057" lon="1.1010597254569576"><ele>386.0</ele><time>2026-04-01T15:26:26Z</time></trkpt><trkpt lat="43.10727371901173" lon="1.1012826715845425"><ele>386.0</ele><time>2026-04-01T15:26:27Z</time></trkpt><trkpt lat="43.10733588182237" lon="1.1015058567477303"><ele>386.0</ele><time>2026-04-01T15:26:28Z</time></trkpt><trkpt lat="43.10738621023167" lon="1.1017326120880735"><ele>388.3333333333333</ele><time>2026-04-01T15:26:29Z</time></trkpt><trkpt lat="43.10744984387339" lon="1.1019554936058782"><ele>390.66666666666663</ele><time>2026-04-01T15:26:30Z</time></trkpt><trkpt lat="43.107521634170006" lon="1.102174961979944"><ele>393.0</ele><time>2026-04-01T15:26:31Z</time></trkpt><trkpt lat="43.107589660300384" lon="1.102388624234884"><ele>394.33333333333337</ele><time>2026-04-01T15:26:32Z</time></trkpt><trkpt lat="43.10765758895985" lon="1.1025948777490298"><ele>395.6666666666667</ele><time>2026-04-01T15:26:33Z</time></trkpt><trkpt lat="43.107721870327836" lon="1.1027967860103463"><ele>397.0</ele><time>2026-04-01T15:26:34Z</time></trkpt><trkpt lat="43.10777230103544" lon="1.1029773859047913"><ele>397.0</ele><time>2026-04-01T15:26:35Z</time></trkpt><trkpt lat="43.10780861316469" lon="1.1031492334357897"><ele>397.0</ele><time>2026-04-01T15:26:36Z</time></trkpt><trkpt lat="43.10781898729916" lon="1.1033102313407974"><ele>397.0</ele><time>2026-04-01T15:26:37Z</time></trkpt><trkpt lat="43.10778109478083" lon="1.1034854050195346"><ele>397.0</ele><time>2026-04-01T15:26:38Z</time></trkpt><trkpt lat="43.10775551669164" lon="1.10368829206461"><ele>399.25</ele><time>2026-04-01T15:26:39Z</time></trkpt><trkpt lat="43.107740128040824" lon="1.103898005761132"><ele>401.5</ele><time>2026-04-01T15:26:40Z</time></trkpt><trkpt lat="43.10770967896549" lon="1.104091933141427"><ele>403.75</ele><time>2026-04-01T15:26:41Z</time></trkpt><trkpt lat="43.10768821974845" lon="1.1042560382261664"><ele>406.0</ele><time>2026-04-01T15:26:42Z</time></trkpt><trkpt lat="43.10767042783335" lon="1.1043989313216287"><ele>407.00000000000006</ele><time>2026-04-01T15:26:43Z</time></trkpt><trkpt lat="43.10765054185165" lon="1.1045289223420822"><ele>408.0</ele><time>2026-04-01T15:26:44Z</time></trkpt><trkpt lat="43.10762873326825" lon="1.1046467237612028"><ele>409.0</ele><time>2026-04-01T15:26:45Z</time></trkpt><trkpt lat="43.10762620978779" lon="1.1047559754179221"><ele>410.0</ele><time>2026-04-01T15:26:46Z</time></trkpt><trkpt lat="43.10761441353522" lon="1.1048595163615949"><ele>411.00000000000006</ele><time>2026-04-01T15:26:47Z</time></trkpt><trkpt lat="43.10761460324617" lon="1.1049705524284161"><ele>412.0</ele><time>2026-04-01T15:26:48Z</time></trkpt><trkpt lat="43.10762257613315" lon="1.1050837506310978"><ele>412.50000000000006</ele><time>2026-04-01T15:26:49Z</time></trkpt><trkpt lat="43.10764133999735" lon="1.1051994872851596"><ele>413.0</ele><time>2026-04-01T15:26:50Z</time></trkpt><trkpt lat="43.107672971618506" lon="1.105308420854657"><ele>413.5</ele><time>2026-04-01T15:26:51Z</time></trkpt><trkpt lat="43.107705529483155" lon="1.105407987090181"><ele>414.0</ele><time>2026-04-01T15:26:52Z</time></trkpt><trkpt lat="43.10772587172535" lon="1.1054904266631709"><ele>414.50000000000006</ele><time>2026-04-01T15:26:53Z</time></trkpt><trkpt lat="43.10774126308679" lon="1.105611274403046"><ele>415.0</ele><time>2026-04-01T15:26:55Z</time></trkpt><trkpt lat="43.10777726828661" lon="1.105740476482276"><ele>415.00000000000006</ele><time>2026-04-01T15:26:57Z</time></trkpt><trkpt lat="43.1078099582046" lon="1.1058918398134663"><ele>415.0</ele><time>2026-04-01T15:26:59Z</time></trkpt><trkpt lat="43.10783432516964" lon="1.1059726793933429"><ele>415.0</ele><time>2026-04-01T15:27:00Z</time></trkpt><trkpt lat="43.10785718602745" lon="1.1060581871828732"><ele>415.0</ele><time>2026-04-01T15:27:01Z</time></trkpt><trkpt lat="43.10788045139884" lon="1.1061439691139638"><ele>415.00000000000006</ele><time>2026-04-01T15:27:02Z</time></trkpt><trkpt lat="43.10791870259457" lon="1.1062348691027561"><ele>415.0</ele><time>2026-04-01T15:27:03Z</time></trkpt><trkpt lat="43.107982107686766" lon="1.1063207913928939"><ele>415.0</ele><time>2026-04-01T15:27:04Z</time></trkpt><trkpt lat="43.10806736155974" lon="1.1063905301200112"><ele>415.0</ele><time>2026-04-01T15:27:05Z</time></trkpt><trkpt lat="43.108165777989264" lon="1.1064596802406244"><ele>415.0</ele><time>2026-04-01T15:27:06Z</time></trkpt><trkpt lat="43.10827267734255" lon="1.1065270152699394"><ele>415.0</ele><time>2026-04-01T15:27:07Z</time></trkpt><trkpt lat="43.10837447424583" lon="1.1065905206128293"><ele>415.0</ele><time>2026-04-01T15:27:08Z</time></trkpt><trkpt lat="43.10846993084711" lon="1.106645204807411"><ele>413.33333333333337</ele><time>2026-04-01T15:27:09Z</time></trkpt><trkpt lat="43.10856107323599" lon="1.1066947977579615"><ele>411.6666666666667</ele><time>2026-04-01T15:27:10Z</time></trkpt><trkpt lat="43.10865134934543" lon="1.1067336506447363"><ele>410.0</ele><time>2026-04-01T15:27:11Z</time></trkpt><trkpt lat="43.10873456153242" lon="1.1067640358311204"><ele>408.33333333333337</ele><time>2026-04-01T15:27:12Z</time></trkpt><trkpt lat="43.10880527509324" lon="1.1067850114606805"><ele>406.6666666666667</ele><time>2026-04-01T15:27:13Z</time></trkpt><trkpt lat="43.10888631054193" lon="1.10683157294164"><ele>405.0</ele><time>2026-04-01T15:27:15Z</time></trkpt><trkpt lat="43.10893865100341" lon="1.106922149345255"><ele>405.0</ele><time>2026-04-01T15:27:20Z</time></trkpt><trkpt lat="43.109072367305174" lon="1.1068876337429785"><ele>405.0</ele><time>2026-04-01T15:27:22Z</time></trkpt><trkpt lat="43.10915207985718" lon="1.1068198471622528"><ele>405.0</ele><time>2026-04-01T15:27:23Z</time></trkpt><trkpt lat="43.10924794330186" lon="1.1067392005984924"><ele>405.0</ele><time>2026-04-01T15:27:24Z</time></trkpt><trkpt lat="43.10934774263442" lon="1.1066414121292354"><ele>406.25</ele><time>2026-04-01T15:27:25Z</time></trkpt><trkpt lat="43.10945262147455" lon="1.1065306873204548"><ele>407.5</ele><time>2026-04-01T15:27:26Z</time></trkpt><trkpt lat="43.10955788182555" lon="1.1064212193364966"><ele>408.75</ele><time>2026-04-01T15:27:27Z</time></trkpt><trkpt lat="43.109662057509084" lon="1.1063116011332563"><ele>410.0</ele><time>2026-04-01T15:27:28Z</time></trkpt><trkpt lat="43.10977087430648" lon="1.106200562520232"><ele>410.0</ele><time>2026-04-01T15:27:29Z</time></trkpt><trkpt lat="43.109889033205704" lon="1.1060903987533377"><ele>410.0</ele><time>2026-04-01T15:27:30Z</time></trkpt><trkpt lat="43.11000583493991" lon="1.1059909083439698"><ele>410.0</ele><time>2026-04-01T15:27:31Z</time></trkpt><trkpt lat="43.110123869805825" lon="1.1059348075983824"><ele>410.0</ele><time>2026-04-01T15:27:32Z</time></trkpt><trkpt lat="43.1102484768055" lon="1.1059232676141693"><ele>408.25</ele><time>2026-04-01T15:27:33Z</time></trkpt><trkpt lat="43.11037225990252" lon="1.105951288128602"><ele>406.5</ele><time>2026-04-01T15:27:34Z</time></trkpt><trkpt lat="43.110498977810465" lon="1.1060068739310354"><ele>404.75</ele><time>2026-04-01T15:27:35Z</time></trkpt><trkpt lat="43.11062537230379" lon="1.1060767731135352"><ele>403.0</ele><time>2026-04-01T15:27:36Z</time></trkpt><trkpt lat="43.11075548413351" lon="1.1061551686840843"><ele>403.0</ele><time>2026-04-01T15:27:37Z</time></trkpt><trkpt lat="43.110886488541446" lon="1.1062281414617845"><ele>403.0</ele><time>2026-04-01T15:27:38Z</time></trkpt><trkpt lat="43.11101751565755" lon="1.1062992572577308"><ele>403.0</ele><time>2026-04-01T15:27:39Z</time></trkpt><trkpt lat="43.11114093279309" lon="1.1063635602193052"><ele>403.0</ele><time>2026-04-01T15:27:40Z</time></trkpt><trkpt lat="43.11123476251875" lon="1.1064129485651353"><ele>403.0</ele><time>2026-04-01T15:27:41Z</time></trkpt><trkpt lat="43.11129992712173" lon="1.106478802696771"><ele>403.0</ele><time>2026-04-01T15:27:43Z</time></trkpt><trkpt lat="43.11120589905491" lon="1.1063544800578633"><ele>403.0</ele><time>2026-04-01T15:27:49Z</time></trkpt><trkpt lat="43.11113095310691" lon="1.1063511244399937"><ele>403.0</ele><time>2026-04-01T15:27:50Z</time></trkpt><trkpt lat="43.11103511351362" lon="1.1063678883967225"><ele>403.0</ele><time>2026-04-01T15:27:52Z</time></trkpt><trkpt lat="43.11099710529208" lon="1.1064695714398194"><ele>401.5</ele><time>2026-04-01T15:27:54Z</time></trkpt><trkpt lat="43.11105713250048" lon="1.1066565534528021"><ele>400.0</ele><time>2026-04-01T15:27:56Z</time></trkpt><trkpt lat="43.111111752988" lon="1.1067849319143441"><ele>398.5</ele><time>2026-04-01T15:27:57Z</time></trkpt><trkpt lat="43.111168976860036" lon="1.1069223247659867"><ele>397.0</ele><time>2026-04-01T15:27:58Z</time></trkpt><trkpt lat="43.111228386332215" lon="1.1070755811051072"><ele>397.0</ele><time>2026-04-01T15:27:59Z</time></trkpt><trkpt lat="43.111287931715815" lon="1.1072449937742996"><ele>397.0</ele><time>2026-04-01T15:28:00Z</time></trkpt><trkpt lat="43.11134820005999" lon="1.1074197422025303"><ele>397.0</ele><time>2026-04-01T15:28:01Z</time></trkpt><trkpt lat="43.11140869209471" lon="1.1075969768615783"><ele>397.0</ele><time>2026-04-01T15:28:02Z</time></trkpt><trkpt lat="43.11146397580995" lon="1.1077626686594109"><ele>397.0</ele><time>2026-04-01T15:28:03Z</time></trkpt><trkpt lat="43.11151708826214" lon="1.107922741032372"><ele>397.0</ele><time>2026-04-01T15:28:04Z</time></trkpt><trkpt lat="43.11156863737009" lon="1.1080803160438215"><ele>397.0</ele><time>2026-04-01T15:28:05Z</time></trkpt><trkpt lat="43.11162658383141" lon="1.1082424280480607"><ele>397.0</ele><time>2026-04-01T15:28:06Z</time></trkpt><trkpt lat="43.111685913945045" lon="1.1084044347662194"><ele>397.0</ele><time>2026-04-01T15:28:07Z</time></trkpt><trkpt lat="43.11174595191869" lon="1.1085689961204697"><ele>397.0</ele><time>2026-04-01T15:28:08Z</time></trkpt><trkpt lat="43.11180271320959" lon="1.108736465925285"><ele>397.0</ele><time>2026-04-01T15:28:09Z</time></trkpt><trkpt lat="43.111857612306636" lon="1.1089074234265086"><ele>397.0</ele><time>2026-04-01T15:28:10Z</time></trkpt><trkpt lat="43.11191145015858" lon="1.109072028308377"><ele>396.0</ele><time>2026-04-01T15:28:11Z</time></trkpt><trkpt lat="43.11197031107704" lon="1.1092383653931446"><ele>395.0</ele><time>2026-04-01T15:28:12Z</time></trkpt><trkpt lat="43.11203143854338" lon="1.1094049672607358"><ele>394.0</ele><time>2026-04-01T15:28:13Z</time></trkpt><trkpt lat="43.11208572955231" lon="1.109571225025984"><ele>393.0</ele><time>2026-04-01T15:28:14Z</time></trkpt><trkpt lat="43.11212461069107" lon="1.109731620588241"><ele>393.0</ele><time>2026-04-01T15:28:15Z</time></trkpt><trkpt lat="43.11212319133726" lon="1.1098885331083215"><ele>393.0</ele><time>2026-04-01T15:28:16Z</time></trkpt><trkpt lat="43.1120898709605" lon="1.1100454870194774"><ele>393.0</ele><time>2026-04-01T15:28:17Z</time></trkpt><trkpt lat="43.11202493760875" lon="1.1101824639889937"><ele>393.0</ele><time>2026-04-01T15:28:18Z</time></trkpt><trkpt lat="43.11193465702456" lon="1.1102965076417948"><ele>392.33333333333337</ele><time>2026-04-01T15:28:19Z</time></trkpt><trkpt lat="43.11182413653799" lon="1.110417214786027"><ele>391.6666666666667</ele><time>2026-04-01T15:28:20Z</time></trkpt><trkpt lat="43.11170133785603" lon="1.110556331233274"><ele>391.0</ele><time>2026-04-01T15:28:21Z</time></trkpt><trkpt lat="43.1115806678789" lon="1.1107020399592213"><ele>390.6666666666667</ele><time>2026-04-01T15:28:22Z</time></trkpt><trkpt lat="43.11146740906753" lon="1.1108438056835017"><ele>390.33333333333337</ele><time>2026-04-01T15:28:23Z</time></trkpt><trkpt lat="43.111352578674705" lon="1.1109857811077994"><ele>390.0</ele><time>2026-04-01T15:28:24Z</time></trkpt><trkpt lat="43.111225098625084" lon="1.1111112845429973"><ele>390.0</ele><time>2026-04-01T15:28:25Z</time></trkpt><trkpt lat="43.11112258851148" lon="1.1112661135245196"><ele>390.0</ele><time>2026-04-01T15:28:26Z</time></trkpt><trkpt lat="43.111017450673586" lon="1.1114077582760977"><ele>390.0</ele><time>2026-04-01T15:28:27Z</time></trkpt><trkpt lat="43.110922676448574" lon="1.1115622307433395"><ele>390.0</ele><time>2026-04-01T15:28:28Z</time></trkpt><trkpt lat="43.11084902563407" lon="1.1117367400741378"><ele>389.75</ele><time>2026-04-01T15:28:29Z</time></trkpt><trkpt lat="43.11078940837581" lon="1.1119207643241693"><ele>389.5</ele><time>2026-04-01T15:28:30Z</time></trkpt><trkpt lat="43.110748166598476" lon="1.112111714955606"><ele>389.25</ele><time>2026-04-01T15:28:31Z</time></trkpt><trkpt lat="43.1107256234822" lon="1.112312781899342"><ele>389.0</ele><time>2026-04-01T15:28:32Z</time></trkpt><trkpt lat="43.110714483733645" lon="1.1125120957371697"><ele>391.0</ele><time>2026-04-01T15:28:33Z</time></trkpt><trkpt lat="43.110715664615164" lon="1.1127225209537288"><ele>393.0</ele><time>2026-04-01T15:28:34Z</time></trkpt><trkpt lat="43.11073273138867" lon="1.1129506709139492"><ele>395.0</ele><time>2026-04-01T15:28:35Z</time></trkpt><trkpt lat="43.11074420818915" lon="1.113174329631081"><ele>396.25</ele><time>2026-04-01T15:28:36Z</time></trkpt><trkpt lat="43.11075668860608" lon="1.1133904069170062"><ele>397.5</ele><time>2026-04-01T15:28:37Z</time></trkpt><trkpt lat="43.11077751071923" lon="1.1135897864457422"><ele>398.75</ele><time>2026-04-01T15:28:38Z</time></trkpt><trkpt lat="43.11080968052355" lon="1.1137665802498327"><ele>400.0</ele><time>2026-04-01T15:28:39Z</time></trkpt><trkpt lat="43.11085808321948" lon="1.1139239860332113"><ele>399.25</ele><time>2026-04-01T15:28:40Z</time></trkpt><trkpt lat="43.110923169281676" lon="1.114081642674073"><ele>398.5</ele><time>2026-04-01T15:28:41Z</time></trkpt><trkpt lat="43.11100064177307" lon="1.1142332108839867"><ele>397.75</ele><time>2026-04-01T15:28:42Z</time></trkpt><trkpt lat="43.11108989075706" lon="1.1143768487260108"><ele>397.0</ele><time>2026-04-01T15:28:43Z</time></trkpt><trkpt lat="43.11117814541691" lon="1.1145220864076186"><ele>397.0</ele><time>2026-04-01T15:28:44Z</time></trkpt><trkpt lat="43.11126027914734" lon="1.114674655899923"><ele>397.0</ele><time>2026-04-01T15:28:45Z</time></trkpt><trkpt lat="43.11133987516678" lon="1.1148265239624948"><ele>397.0</ele><time>2026-04-01T15:28:46Z</time></trkpt><trkpt lat="43.11141908088032" lon="1.114978524739663"><ele>397.0</ele><time>2026-04-01T15:28:47Z</time></trkpt><trkpt lat="43.111496276781686" lon="1.115131024922929"><ele>396.5</ele><time>2026-04-01T15:28:48Z</time></trkpt><trkpt lat="43.111572776005026" lon="1.1152881688684386"><ele>396.0</ele><time>2026-04-01T15:28:49Z</time></trkpt><trkpt lat="43.11164753126961" lon="1.115451074591469"><ele>395.5</ele><time>2026-04-01T15:28:50Z</time></trkpt><trkpt lat="43.11171963641876" lon="1.1156172249600942"><ele>395.0</ele><time>2026-04-01T15:28:51Z</time></trkpt><trkpt lat="43.111791622924976" lon="1.1157849338915369"><ele>397.5</ele><time>2026-04-01T15:28:52Z</time></trkpt><trkpt lat="43.11186261843004" lon="1.1159526390039576"><ele>400.0</ele><time>2026-04-01T15:28:53Z</time></trkpt><trkpt lat="43.111931724252464" lon="1.1161200538996803"><ele>402.5</ele><time>2026-04-01T15:28:54Z</time></trkpt><trkpt lat="43.1120012736153" lon="1.1162888491725733"><ele>405.0</ele><time>2026-04-01T15:28:55Z</time></trkpt><trkpt lat="43.11207190188099" lon="1.1164521267884278"><ele>404.75</ele><time>2026-04-01T15:28:56Z</time></trkpt><trkpt lat="43.11214727729511" lon="1.1166127513753448"><ele>404.5</ele><time>2026-04-01T15:28:57Z</time></trkpt><trkpt lat="43.112229728383554" lon="1.1167679815516844"><ele>404.25</ele><time>2026-04-01T15:28:58Z</time></trkpt><trkpt lat="43.11231787914653" lon="1.1169172339120834"><ele>404.0</ele><time>2026-04-01T15:28:59Z</time></trkpt><trkpt lat="43.112407497825714" lon="1.1170617421803175"><ele>404.75</ele><time>2026-04-01T15:29:00Z</time></trkpt><trkpt lat="43.112497276412235" lon="1.1172068554203434"><ele>405.5</ele><time>2026-04-01T15:29:01Z</time></trkpt><trkpt lat="43.112586568873866" lon="1.1173539435608961"><ele>406.25</ele><time>2026-04-01T15:29:02Z</time></trkpt><trkpt lat="43.11267486126654" lon="1.1175013057121301"><ele>407.0</ele><time>2026-04-01T15:29:03Z</time></trkpt><trkpt lat="43.112762174348944" lon="1.1176508683246948"><ele>407.0</ele><time>2026-04-01T15:29:04Z</time></trkpt><trkpt lat="43.112848890119245" lon="1.1178012702991973"><ele>407.0</ele><time>2026-04-01T15:29:05Z</time></trkpt><trkpt lat="43.11293113126285" lon="1.1179539411777442"><ele>407.0</ele><time>2026-04-01T15:29:06Z</time></trkpt><trkpt lat="43.11299868486835" lon="1.1181129323645842"><ele>407.0</ele><time>2026-04-01T15:29:07Z</time></trkpt><trkpt lat="43.11303344113562" lon="1.1182954185029916"><ele>406.75</ele><time>2026-04-01T15:29:08Z</time></trkpt><trkpt lat="43.113035043510436" lon="1.1184837595051973"><ele>406.5</ele><time>2026-04-01T15:29:09Z</time></trkpt><trkpt lat="43.11301864633928" lon="1.1186705710912697"><ele>406.25</ele><time>2026-04-01T15:29:10Z</time></trkpt><trkpt lat="43.11298119241527" lon="1.1188596066051089"><ele>406.0</ele><time>2026-04-01T15:29:11Z</time></trkpt><trkpt lat="43.11292096211004" lon="1.1190431184664984"><ele>406.25</ele><time>2026-04-01T15:29:12Z</time></trkpt><trkpt lat="43.11285439821149" lon="1.1192191894354158"><ele>406.5</ele><time>2026-04-01T15:29:13Z</time></trkpt><trkpt lat="43.11278920031456" lon="1.1193976365157534"><ele>406.75</ele><time>2026-04-01T15:29:14Z</time></trkpt><trkpt lat="43.11272584013197" lon="1.1195771602086957"><ele>407.0</ele><time>2026-04-01T15:29:15Z</time></trkpt><trkpt lat="43.112663305929004" lon="1.119759237218142"><ele>407.75</ele><time>2026-04-01T15:29:16Z</time></trkpt><trkpt lat="43.11260637605604" lon="1.1199427447468437"><ele>408.5</ele><time>2026-04-01T15:29:17Z</time></trkpt><trkpt lat="43.112553340736156" lon="1.1201303164919054"><ele>409.25</ele><time>2026-04-01T15:29:18Z</time></trkpt><trkpt lat="43.11249865892905" lon="1.1203175922234008"><ele>410.0</ele><time>2026-04-01T15:29:19Z</time></trkpt><trkpt lat="43.11244481522104" lon="1.1205094486512563"><ele>409.66666666666663</ele><time>2026-04-01T15:29:20Z</time></trkpt><trkpt lat="43.11239415501092" lon="1.1207034779882754"><ele>409.33333333333337</ele><time>2026-04-01T15:29:21Z</time></trkpt><trkpt lat="43.112351833618746" lon="1.120904397669383"><ele>409.0</ele><time>2026-04-01T15:29:22Z</time></trkpt><trkpt lat="43.11231683649634" lon="1.1211100308447228"><ele>409.0</ele><time>2026-04-01T15:29:23Z</time></trkpt><trkpt lat="43.11228415590451" lon="1.1213168286714499"><ele>409.0</ele><time>2026-04-01T15:29:24Z</time></trkpt><trkpt lat="43.11225555715116" lon="1.1215235068528486"><ele>409.0</ele><time>2026-04-01T15:29:25Z</time></trkpt><trkpt lat="43.112235699698246" lon="1.1217338982279086"><ele>409.0</ele><time>2026-04-01T15:29:26Z</time></trkpt><trkpt lat="43.11222368881675" lon="1.1219438690194403"><ele>409.0</ele><time>2026-04-01T15:29:27Z</time></trkpt><trkpt lat="43.112214591746934" lon="1.1221588145507053"><ele>409.0</ele><time>2026-04-01T15:29:28Z</time></trkpt><trkpt lat="43.112208278973746" lon="1.1223723783352015"><ele>407.6666666666667</ele><time>2026-04-01T15:29:29Z</time></trkpt><trkpt lat="43.11220530177837" lon="1.1225827345637327"><ele>406.33333333333337</ele><time>2026-04-01T15:29:30Z</time></trkpt><trkpt lat="43.1122005628037" lon="1.1227960089204074"><ele>405.0</ele><time>2026-04-01T15:29:31Z</time></trkpt><trkpt lat="43.112194519106026" lon="1.1230101528896816"><ele>405.0</ele><time>2026-04-01T15:29:32Z</time></trkpt><trkpt lat="43.112190559179176" lon="1.1232235161394533"><ele>405.0</ele><time>2026-04-01T15:29:33Z</time></trkpt><trkpt lat="43.112183225063994" lon="1.123434808064074"><ele>405.0</ele><time>2026-04-01T15:29:34Z</time></trkpt><trkpt lat="43.112174163011" lon="1.1236480106981237"><ele>404.66666666666663</ele><time>2026-04-01T15:29:35Z</time></trkpt><trkpt lat="43.112167934518936" lon="1.1238619675127395"><ele>404.3333333333333</ele><time>2026-04-01T15:29:36Z</time></trkpt><trkpt lat="43.11216443429529" lon="1.124078114899554"><ele>404.0</ele><time>2026-04-01T15:29:37Z</time></trkpt><trkpt lat="43.11216035828972" lon="1.124287723416304"><ele>404.0</ele><time>2026-04-01T15:29:38Z</time></trkpt><trkpt lat="43.11215789272137" lon="1.1244990396575425"><ele>404.0</ele><time>2026-04-01T15:29:39Z</time></trkpt><trkpt lat="43.11216143136913" lon="1.1247075611938175"><ele>404.0</ele><time>2026-04-01T15:29:40Z</time></trkpt><trkpt lat="43.112156608423824" lon="1.1249155318331165"><ele>404.3333333333333</ele><time>2026-04-01T15:29:41Z</time></trkpt><trkpt lat="43.11213124534065" lon="1.125120442883634"><ele>404.66666666666663</ele><time>2026-04-01T15:29:42Z</time></trkpt><trkpt lat="43.112083941234935" lon="1.1253250122541656"><ele>405.0</ele><time>2026-04-01T15:29:43Z</time></trkpt><trkpt lat="43.1120174669739" lon="1.1255238966500392"><ele>405.0</ele><time>2026-04-01T15:29:44Z</time></trkpt><trkpt lat="43.11192517569909" lon="1.125705150673583"><ele>405.0</ele><time>2026-04-01T15:29:45Z</time></trkpt><trkpt lat="43.11179808240278" lon="1.1258383193509245"><ele>405.0</ele><time>2026-04-01T15:29:46Z</time></trkpt><trkpt lat="43.111673982342154" lon="1.1259721134541163"><ele>404.66666666666663</ele><time>2026-04-01T15:29:47Z</time></trkpt><trkpt lat="43.111547603179005" lon="1.1261041392109703"><ele>404.3333333333333</ele><time>2026-04-01T15:29:48Z</time></trkpt><trkpt lat="43.11142544683719" lon="1.1262494479229472"><ele>404.0</ele><time>2026-04-01T15:29:49Z</time></trkpt><trkpt lat="43.11129478501478" lon="1.1263812599312373"><ele>404.0</ele><time>2026-04-01T15:29:50Z</time></trkpt><trkpt lat="43.11116522302889" lon="1.1265185737581964"><ele>404.0</ele><time>2026-04-01T15:29:51Z</time></trkpt><trkpt lat="43.11102768300471" lon="1.1266286215284673"><ele>404.0</ele><time>2026-04-01T15:29:52Z</time></trkpt><trkpt lat="43.110882479618326" lon="1.1266995108719917"><ele>403.75</ele><time>2026-04-01T15:29:53Z</time></trkpt><trkpt lat="43.11074225593339" lon="1.1267589834088094"><ele>403.5</ele><time>2026-04-01T15:29:54Z</time></trkpt><trkpt lat="43.110609026924976" lon="1.126826721567141"><ele>403.25</ele><time>2026-04-01T15:29:55Z</time></trkpt><trkpt lat="43.11048221311608" lon="1.1268694440675533"><ele>403.0</ele><time>2026-04-01T15:29:56Z</time></trkpt><trkpt lat="43.110364082998046" lon="1.1269293581498738"><ele>403.0</ele><time>2026-04-01T15:29:57Z</time></trkpt><trkpt lat="43.11025551003386" lon="1.1270126581035398"><ele>403.0</ele><time>2026-04-01T15:29:58Z</time></trkpt><trkpt lat="43.11015936323641" lon="1.1271203438867892"><ele>403.0</ele><time>2026-04-01T15:29:59Z</time></trkpt><trkpt lat="43.1100770808262" lon="1.1272427120759785"><ele>403.0</ele><time>2026-04-01T15:30:00Z</time></trkpt><trkpt lat="43.11001503241708" lon="1.127371058430164"><ele>403.4</ele><time>2026-04-01T15:30:01Z</time></trkpt><trkpt lat="43.10996587038564" lon="1.127497830210805"><ele>403.79999999999995</ele><time>2026-04-01T15:30:02Z</time></trkpt><trkpt lat="43.1099274864926" lon="1.1276273021009167"><ele>404.2</ele><time>2026-04-01T15:30:03Z</time></trkpt><trkpt lat="43.10989734471497" lon="1.1277691468704472"><ele>404.6</ele><time>2026-04-01T15:30:04Z</time></trkpt><trkpt lat="43.109903897291304" lon="1.1279162407331111"><ele>405.0</ele><time>2026-04-01T15:30:05Z</time></trkpt><trkpt lat="43.109936246757854" lon="1.128094691520165"><ele>406.25</ele><time>2026-04-01T15:30:06Z</time></trkpt><trkpt lat="43.10998202129681" lon="1.1282505872690751"><ele>407.5</ele><time>2026-04-01T15:30:07Z</time></trkpt><trkpt lat="43.11004643372684" lon="1.128397788625034"><ele>408.75</ele><time>2026-04-01T15:30:08Z</time></trkpt><trkpt lat="43.11012136459987" lon="1.1285461520546285"><ele>410.0</ele><time>2026-04-01T15:30:09Z</time></trkpt><trkpt lat="43.11019809753756" lon="1.1286945268197428"><ele>410.0</ele><time>2026-04-01T15:30:10Z</time></trkpt><trkpt lat="43.110278292144585" lon="1.1288422600720818"><ele>410.0</ele><time>2026-04-01T15:30:11Z</time></trkpt><trkpt lat="43.11035234517674" lon="1.1289943897510204"><ele>410.0</ele><time>2026-04-01T15:30:12Z</time></trkpt><trkpt lat="43.11040950058351" lon="1.1291495757740801"><ele>410.0</ele><time>2026-04-01T15:30:13Z</time></trkpt><trkpt lat="43.11045408713039" lon="1.129305393337594"><ele>409.75</ele><time>2026-04-01T15:30:14Z</time></trkpt><trkpt lat="43.110485171863836" lon="1.1294630848391267"><ele>409.5</ele><time>2026-04-01T15:30:15Z</time></trkpt><trkpt lat="43.11050309376269" lon="1.1296300396519194"><ele>409.25</ele><time>2026-04-01T15:30:16Z</time></trkpt><trkpt lat="43.1105115301809" lon="1.1298067492560462"><ele>409.0</ele><time>2026-04-01T15:30:17Z</time></trkpt><trkpt lat="43.110507996894945" lon="1.1299954763996403"><ele>409.0</ele><time>2026-04-01T15:30:18Z</time></trkpt><trkpt lat="43.11050230840379" lon="1.130191739607121"><ele>409.0</ele><time>2026-04-01T15:30:19Z</time></trkpt><trkpt lat="43.11050325069698" lon="1.1303938033594139"><ele>409.0</ele><time>2026-04-01T15:30:20Z</time></trkpt><trkpt lat="43.11051137898524" lon="1.130601511134168"><ele>409.0</ele><time>2026-04-01T15:30:21Z</time></trkpt><trkpt lat="43.11053071816456" lon="1.1308102371761832"><ele>409.0</ele><time>2026-04-01T15:30:22Z</time></trkpt><trkpt lat="43.11056436395877" lon="1.1310076009723764"><ele>409.0</ele><time>2026-04-01T15:30:23Z</time></trkpt><trkpt lat="43.11061128589629" lon="1.1311981879823692"><ele>409.0</ele><time>2026-04-01T15:30:24Z</time></trkpt><trkpt lat="43.11066912194605" lon="1.1313816924665134"><ele>409.0</ele><time>2026-04-01T15:30:25Z</time></trkpt><trkpt lat="43.11073602318604" lon="1.1315608095484662"><ele>409.5</ele><time>2026-04-01T15:30:26Z</time></trkpt><trkpt lat="43.11081166600106" lon="1.1317302988903948"><ele>410.0</ele><time>2026-04-01T15:30:27Z</time></trkpt><trkpt lat="43.110899888461184" lon="1.1318903920836203"><ele>410.5</ele><time>2026-04-01T15:30:28Z</time></trkpt><trkpt lat="43.11100125088756" lon="1.1320411896936955"><ele>411.0</ele><time>2026-04-01T15:30:29Z</time></trkpt><trkpt lat="43.11111065186362" lon="1.1321788649483728"><ele>411.0</ele><time>2026-04-01T15:30:30Z</time></trkpt><trkpt lat="43.11122228932504" lon="1.1323110546016606"><ele>411.0</ele><time>2026-04-01T15:30:31Z</time></trkpt><trkpt lat="43.11133234259193" lon="1.1324499628575817"><ele>411.0</ele><time>2026-04-01T15:30:32Z</time></trkpt><trkpt lat="43.111440196188624" lon="1.132593716878795"><ele>411.0</ele><time>2026-04-01T15:30:33Z</time></trkpt><trkpt lat="43.111551260414835" lon="1.1327365730573895"><ele>411.0</ele><time>2026-04-01T15:30:34Z</time></trkpt><trkpt lat="43.111663048822784" lon="1.1328738470914645"><ele>411.0</ele><time>2026-04-01T15:30:35Z</time></trkpt><trkpt lat="43.11177375981733" lon="1.1330105539798556"><ele>411.0</ele><time>2026-04-01T15:30:36Z</time></trkpt><trkpt lat="43.11188484919875" lon="1.1331449225124537"><ele>411.0</ele><time>2026-04-01T15:30:37Z</time></trkpt><trkpt lat="43.111995359506416" lon="1.1332752167326907"><ele>411.0</ele><time>2026-04-01T15:30:38Z</time></trkpt><trkpt lat="43.11210010630774" lon="1.133404715155172"><ele>411.0</ele><time>2026-04-01T15:30:39Z</time></trkpt><trkpt lat="43.11219780304627" lon="1.1335403422565549"><ele>411.0</ele><time>2026-04-01T15:30:40Z</time></trkpt><trkpt lat="43.11228251443132" lon="1.1336844573301648"><ele>411.0</ele><time>2026-04-01T15:30:41Z</time></trkpt><trkpt lat="43.11234571586362" lon="1.1338558767748006"><ele>411.0</ele><time>2026-04-01T15:30:42Z</time></trkpt><trkpt lat="43.11240281023177" lon="1.1340404288001544"><ele>411.0</ele><time>2026-04-01T15:30:43Z</time></trkpt><trkpt lat="43.11246073120039" lon="1.1342380657095292"><ele>411.0</ele><time>2026-04-01T15:30:44Z</time></trkpt><trkpt lat="43.11252342020589" lon="1.1344640374389274"><ele>412.0</ele><time>2026-04-01T15:30:45Z</time></trkpt><trkpt lat="43.11258598093961" lon="1.1346896886419695"><ele>413.0</ele><time>2026-04-01T15:30:46Z</time></trkpt><trkpt lat="43.112654039959374" lon="1.1349174723556448"><ele>414.0</ele><time>2026-04-01T15:30:47Z</time></trkpt><trkpt lat="43.11272570171215" lon="1.1351658186830917"><ele>414.5</ele><time>2026-04-01T15:30:48Z</time></trkpt><trkpt lat="43.11280252350497" lon="1.135444998542059"><ele>415.0</ele><time>2026-04-01T15:30:49Z</time></trkpt><trkpt lat="43.11288460751352" lon="1.1357505170297402"><ele>415.6666666666667</ele><time>2026-04-01T15:30:50Z</time></trkpt><trkpt lat="43.11296852574457" lon="1.1360557628859609"><ele>416.33333333333337</ele><time>2026-04-01T15:30:51Z</time></trkpt><trkpt lat="43.113037657454285" lon="1.1362980566377752"><ele>417.0</ele><time>2026-04-01T15:30:52Z</time></trkpt><trkpt lat="43.113117549576224" lon="1.1365718367893898"><ele>417.33333333333337</ele><time>2026-04-01T15:30:53Z</time></trkpt><trkpt lat="43.11319594423592" lon="1.1368409216257067"><ele>417.6666666666667</ele><time>2026-04-01T15:30:54Z</time></trkpt><trkpt lat="43.1132724806589" lon="1.137106543248507"><ele>418.0</ele><time>2026-04-01T15:30:55Z</time></trkpt><trkpt lat="43.11335117809245" lon="1.1373825953242482"><ele>417.6666666666667</ele><time>2026-04-01T15:30:56Z</time></trkpt><trkpt lat="43.113428959267985" lon="1.1376786824772576"><ele>417.33333333333337</ele><time>2026-04-01T15:30:57Z</time></trkpt><trkpt lat="43.113501566382084" lon="1.1379556004979485"><ele>417.0</ele><time>2026-04-01T15:30:58Z</time></trkpt><trkpt lat="43.113573342989255" lon="1.138205635896157"><ele>417.66666666666663</ele><time>2026-04-01T15:30:59Z</time></trkpt><trkpt lat="43.113647169235854" lon="1.1384477811599425"><ele>418.3333333333333</ele><time>2026-04-01T15:31:00Z</time></trkpt><trkpt lat="43.113714454386894" lon="1.1386900580801285"><ele>419.0</ele><time>2026-04-01T15:31:01Z</time></trkpt><trkpt lat="43.11377352857565" lon="1.1389532353445708"><ele>419.66666666666663</ele><time>2026-04-01T15:31:02Z</time></trkpt><trkpt lat="43.11380250178696" lon="1.139246890057509"><ele>420.33333333333337</ele><time>2026-04-01T15:31:03Z</time></trkpt><trkpt lat="43.11384137229743" lon="1.1395488955038422"><ele>421.0</ele><time>2026-04-01T15:31:04Z</time></trkpt><trkpt lat="43.11389353712768" lon="1.1398390764236164"><ele>421.6666666666667</ele><time>2026-04-01T15:31:05Z</time></trkpt><trkpt lat="43.11392890637899" lon="1.1401250366135651"><ele>422.33333333333337</ele><time>2026-04-01T15:31:06Z</time></trkpt><trkpt lat="43.113961972776" lon="1.140395807444885"><ele>423.0</ele><time>2026-04-01T15:31:07Z</time></trkpt><trkpt lat="43.11400198569505" lon="1.1406447777280004"><ele>423.66666666666663</ele><time>2026-04-01T15:31:08Z</time></trkpt><trkpt lat="43.114058423892835" lon="1.140876711077034"><ele>424.3333333333333</ele><time>2026-04-01T15:31:09Z</time></trkpt><trkpt lat="43.11413220828411" lon="1.1410902817859507"><ele>425.0</ele><time>2026-04-01T15:31:10Z</time></trkpt><trkpt lat="43.11421649389911" lon="1.1412761061406291"><ele>425.75</ele><time>2026-04-01T15:31:11Z</time></trkpt><trkpt lat="43.114304471242754" lon="1.141437540802993"><ele>426.5</ele><time>2026-04-01T15:31:12Z</time></trkpt><trkpt lat="43.11439325067986" lon="1.1415816911493206"><ele>427.25</ele><time>2026-04-01T15:31:13Z</time></trkpt><trkpt lat="43.11447835682772" lon="1.14170523557666"><ele>428.0</ele><time>2026-04-01T15:31:14Z</time></trkpt><trkpt lat="43.11456672961549" lon="1.1418239486995414"><ele>428.25</ele><time>2026-04-01T15:31:15Z</time></trkpt><trkpt lat="43.11465180813822" lon="1.1419359947123593"><ele>428.5</ele><time>2026-04-01T15:31:16Z</time></trkpt><trkpt lat="43.11474065561465" lon="1.142046553645951"><ele>428.75</ele><time>2026-04-01T15:31:17Z</time></trkpt><trkpt lat="43.11484469711814" lon="1.142165627460751"><ele>429.0</ele><time>2026-04-01T15:31:18Z</time></trkpt><trkpt lat="43.11495721732242" lon="1.1422895312251495"><ele>428.66666666666663</ele><time>2026-04-01T15:31:19Z</time></trkpt><trkpt lat="43.11507132969977" lon="1.1424205109703731"><ele>428.3333333333333</ele><time>2026-04-01T15:31:20Z</time></trkpt><trkpt lat="43.11518863351853" lon="1.1425529471184002"><ele>428.0</ele><time>2026-04-01T15:31:21Z</time></trkpt><trkpt lat="43.11530615583871" lon="1.1426931830102212"><ele>428.0</ele><time>2026-04-01T15:31:22Z</time></trkpt><trkpt lat="43.11542069839325" lon="1.1428375023117237"><ele>428.0</ele><time>2026-04-01T15:31:23Z</time></trkpt><trkpt lat="43.115537878792345" lon="1.1429916763552215"><ele>428.0</ele><time>2026-04-01T15:31:24Z</time></trkpt><trkpt lat="43.115647029251605" lon="1.143158505594591"><ele>429.66666666666663</ele><time>2026-04-01T15:31:25Z</time></trkpt><trkpt lat="43.11574523438426" lon="1.1433422056781721"><ele>431.33333333333337</ele><time>2026-04-01T15:31:26Z</time></trkpt><trkpt lat="43.115831680887304" lon="1.1435383880114047"><ele>433.0</ele><time>2026-04-01T15:31:27Z</time></trkpt><trkpt lat="43.11590211882809" lon="1.1437482316407357"><ele>433.0</ele><time>2026-04-01T15:31:28Z</time></trkpt><trkpt lat="43.115956781885785" lon="1.1439629619832323"><ele>433.0</ele><time>2026-04-01T15:31:29Z</time></trkpt><trkpt lat="43.11599965480108" lon="1.1441790679841786"><ele>433.0</ele><time>2026-04-01T15:31:30Z</time></trkpt><trkpt lat="43.11602706555564" lon="1.144392040515841"><ele>432.5</ele><time>2026-04-01T15:31:31Z</time></trkpt><trkpt lat="43.116034534583264" lon="1.1445981853399434"><ele>432.0</ele><time>2026-04-01T15:31:32Z</time></trkpt><trkpt lat="43.11602682700822" lon="1.1448018516616267"><ele>431.5</ele><time>2026-04-01T15:31:33Z</time></trkpt><trkpt lat="43.11599956050265" lon="1.145001273097757"><ele>431.0</ele><time>2026-04-01T15:31:34Z</time></trkpt><trkpt lat="43.11596713644876" lon="1.1451983725794226"><ele>430.0</ele><time>2026-04-01T15:31:35Z</time></trkpt><trkpt lat="43.11594654444472" lon="1.1453980886236839"><ele>429.0</ele><time>2026-04-01T15:31:36Z</time></trkpt><trkpt lat="43.11595810534058" lon="1.1456005764012045"><ele>428.0</ele><time>2026-04-01T15:31:37Z</time></trkpt><trkpt lat="43.116001947083866" lon="1.1458016816296728"><ele>427.0</ele><time>2026-04-01T15:31:38Z</time></trkpt><trkpt lat="43.11607296080724" lon="1.145994561734583"><ele>425.33333333333337</ele><time>2026-04-01T15:31:39Z</time></trkpt><trkpt lat="43.11616140871129" lon="1.1461751330842178"><ele>423.66666666666663</ele><time>2026-04-01T15:31:40Z</time></trkpt><trkpt lat="43.11625783725281" lon="1.1463542637309043"><ele>422.0</ele><time>2026-04-01T15:31:41Z</time></trkpt><trkpt lat="43.116346700664664" lon="1.1465390020932713"><ele>420.0</ele><time>2026-04-01T15:31:42Z</time></trkpt><trkpt lat="43.11640477997255" lon="1.1467530272051156"><ele>418.0</ele><time>2026-04-01T15:31:43Z</time></trkpt><trkpt lat="43.11642705899396" lon="1.1469810764301809"><ele>416.0</ele><time>2026-04-01T15:31:44Z</time></trkpt><trkpt lat="43.11638568304963" lon="1.1471987615708503"><ele>415.3333333333333</ele><time>2026-04-01T15:31:45Z</time></trkpt><trkpt lat="43.11633875172542" lon="1.1474172924216257"><ele>414.66666666666663</ele><time>2026-04-01T15:31:46Z</time></trkpt><trkpt lat="43.11630103628874" lon="1.1476342024220538"><ele>414.0</ele><time>2026-04-01T15:31:47Z</time></trkpt><trkpt lat="43.11627538547912" lon="1.1478587371393294"><ele>414.0</ele><time>2026-04-01T15:31:48Z</time></trkpt><trkpt lat="43.116287977424214" lon="1.1480981258665894"><ele>414.0</ele><time>2026-04-01T15:31:49Z</time></trkpt><trkpt lat="43.11631445191914" lon="1.1483387017609774"><ele>414.0</ele><time>2026-04-01T15:31:50Z</time></trkpt><trkpt lat="43.116330896669425" lon="1.1485767035379892"><ele>414.0</ele><time>2026-04-01T15:31:51Z</time></trkpt><trkpt lat="43.116329827581815" lon="1.1488198899970954"><ele>414.0</ele><time>2026-04-01T15:31:52Z</time></trkpt><trkpt lat="43.116317573819025" lon="1.1490777536642534"><ele>414.0</ele><time>2026-04-01T15:31:53Z</time></trkpt><trkpt lat="43.116292332942145" lon="1.1493137771750073"><ele>414.0</ele><time>2026-04-01T15:31:54Z</time></trkpt><trkpt lat="43.116232335054285" lon="1.149534331286658"><ele>414.0</ele><time>2026-04-01T15:31:55Z</time></trkpt><trkpt lat="43.11619759446223" lon="1.1497474718501692"><ele>414.0</ele><time>2026-04-01T15:31:56Z</time></trkpt><trkpt lat="43.11616385818616" lon="1.1499459394267708"><ele>414.33333333333337</ele><time>2026-04-01T15:31:57Z</time></trkpt><trkpt lat="43.116136764228564" lon="1.1501635757145923"><ele>414.6666666666667</ele><time>2026-04-01T15:31:58Z</time></trkpt><trkpt lat="43.11611190958243" lon="1.150414939216921"><ele>415.0</ele><time>2026-04-01T15:31:59Z</time></trkpt><trkpt lat="43.116101111454824" lon="1.150691571033163"><ele>414.0</ele><time>2026-04-01T15:32:00Z</time></trkpt><trkpt lat="43.1161010824893" lon="1.1509745387889336"><ele>413.0</ele><time>2026-04-01T15:32:01Z</time></trkpt><trkpt lat="43.11609809465778" lon="1.151250462442347"><ele>412.0</ele><time>2026-04-01T15:32:02Z</time></trkpt><trkpt lat="43.11609164376278" lon="1.1514984272633253"><ele>411.33333333333337</ele><time>2026-04-01T15:32:03Z</time></trkpt><trkpt lat="43.116085987685224" lon="1.1517303901698435"><ele>410.66666666666663</ele><time>2026-04-01T15:32:04Z</time></trkpt><trkpt lat="43.11608014282477" lon="1.1519539345976746"><ele>410.0</ele><time>2026-04-01T15:32:05Z</time></trkpt><trkpt lat="43.11607763385342" lon="1.1521737414084907"><ele>410.0</ele><time>2026-04-01T15:32:06Z</time></trkpt><trkpt lat="43.11607803575507" lon="1.1523861833623092"><ele>410.0</ele><time>2026-04-01T15:32:07Z</time></trkpt><trkpt lat="43.1160857083132" lon="1.1525915551752646"><ele>410.0</ele><time>2026-04-01T15:32:08Z</time></trkpt><trkpt lat="43.11612267220376" lon="1.1527878945186114"><ele>410.0</ele><time>2026-04-01T15:32:09Z</time></trkpt><trkpt lat="43.11618940835353" lon="1.1529821277390824"><ele>410.0</ele><time>2026-04-01T15:32:10Z</time></trkpt><trkpt lat="43.11627173895055" lon="1.1531881335001402"><ele>410.0</ele><time>2026-04-01T15:32:11Z</time></trkpt><trkpt lat="43.116356270988774" lon="1.1533989718723396"><ele>409.66666666666663</ele><time>2026-04-01T15:32:12Z</time></trkpt><trkpt lat="43.11643456479711" lon="1.1536118610241934"><ele>409.33333333333337</ele><time>2026-04-01T15:32:13Z</time></trkpt><trkpt lat="43.11650874059629" lon="1.1538214820857493"><ele>409.0</ele><time>2026-04-01T15:32:14Z</time></trkpt><trkpt lat="43.11657398532862" lon="1.1540270578910312"><ele>410.25</ele><time>2026-04-01T15:32:15Z</time></trkpt><trkpt lat="43.11662149928978" lon="1.1542141439223015"><ele>411.5</ele><time>2026-04-01T15:32:16Z</time></trkpt><trkpt lat="43.11665912011397" lon="1.1543970986648306"><ele>412.75</ele><time>2026-04-01T15:32:17Z</time></trkpt><trkpt lat="43.11664612990653" lon="1.1545775254785946"><ele>414.0</ele><time>2026-04-01T15:32:18Z</time></trkpt><trkpt lat="43.116633274122265" lon="1.15476482749922"><ele>413.33333333333337</ele><time>2026-04-01T15:32:19Z</time></trkpt><trkpt lat="43.11659548251931" lon="1.1549677869530826"><ele>412.6666666666667</ele><time>2026-04-01T15:32:20Z</time></trkpt><trkpt lat="43.116564744094106" lon="1.1552005150659563"><ele>412.0</ele><time>2026-04-01T15:32:21Z</time></trkpt><trkpt lat="43.11651959658345" lon="1.155425214286843"><ele>409.0</ele><time>2026-04-01T15:32:22Z</time></trkpt><trkpt lat="43.11647912298364" lon="1.1556478209755288"><ele>406.0</ele><time>2026-04-01T15:32:23Z</time></trkpt><trkpt lat="43.11644398278824" lon="1.1558624456600604"><ele>403.0</ele><time>2026-04-01T15:32:24Z</time></trkpt><trkpt lat="43.11641830942482" lon="1.1560779996543875"><ele>401.0</ele><time>2026-04-01T15:32:25Z</time></trkpt><trkpt lat="43.116411857349846" lon="1.15630543989838"><ele>399.0</ele><time>2026-04-01T15:32:26Z</time></trkpt><trkpt lat="43.11642179025265" lon="1.1565492339704566"><ele>397.0</ele><time>2026-04-01T15:32:27Z</time></trkpt><trkpt lat="43.116434462343825" lon="1.1567952611097476"><ele>397.0</ele><time>2026-04-01T15:32:28Z</time></trkpt><trkpt lat="43.116442914403564" lon="1.1570476943040262"><ele>397.0</ele><time>2026-04-01T15:32:29Z</time></trkpt><trkpt lat="43.11644461262487" lon="1.1572945758104967"><ele>397.0</ele><time>2026-04-01T15:32:30Z</time></trkpt><trkpt lat="43.11644580029886" lon="1.1575207847229747"><ele>398.0</ele><time>2026-04-01T15:32:31Z</time></trkpt><trkpt lat="43.116448358380254" lon="1.157734625776943"><ele>399.0</ele><time>2026-04-01T15:32:32Z</time></trkpt><trkpt lat="43.116450643792696" lon="1.1579381368654347"><ele>400.0</ele><time>2026-04-01T15:32:33Z</time></trkpt><trkpt lat="43.116455515366084" lon="1.1581419485552593"><ele>399.75</ele><time>2026-04-01T15:32:34Z</time></trkpt><trkpt lat="43.11646428034955" lon="1.1583312852757561"><ele>399.5</ele><time>2026-04-01T15:32:35Z</time></trkpt><trkpt lat="43.11647360405562" lon="1.158509640489763"><ele>399.25</ele><time>2026-04-01T15:32:36Z</time></trkpt><trkpt lat="43.116508108544124" lon="1.1586753198264657"><ele>399.0</ele><time>2026-04-01T15:32:37Z</time></trkpt><trkpt lat="43.116589080796" lon="1.1588331765122517"><ele>402.0</ele><time>2026-04-01T15:32:38Z</time></trkpt><trkpt lat="43.116705357700376" lon="1.1589978852691505"><ele>405.0</ele><time>2026-04-01T15:32:39Z</time></trkpt><trkpt lat="43.11680243561413" lon="1.1591905699539804"><ele>408.0</ele><time>2026-04-01T15:32:40Z</time></trkpt><trkpt lat="43.11685723619428" lon="1.1594117322745552"><ele>408.0</ele><time>2026-04-01T15:32:41Z</time></trkpt><trkpt lat="43.11687489147775" lon="1.1596398964509058"><ele>408.0</ele><time>2026-04-01T15:32:42Z</time></trkpt><trkpt lat="43.11685559546732" lon="1.1598636125939181"><ele>408.0</ele><time>2026-04-01T15:32:43Z</time></trkpt><trkpt lat="43.11684186334524" lon="1.1600566931240346"><ele>407.25</ele><time>2026-04-01T15:32:44Z</time></trkpt><trkpt lat="43.116863430165864" lon="1.1602351294202897"><ele>406.5</ele><time>2026-04-01T15:32:45Z</time></trkpt><trkpt lat="43.116927109528774" lon="1.1603924096362201"><ele>405.75</ele><time>2026-04-01T15:32:46Z</time></trkpt><trkpt lat="43.11703005783734" lon="1.1605149988397043"><ele>405.0</ele><time>2026-04-01T15:32:47Z</time></trkpt><trkpt lat="43.11716093960339" lon="1.1605830118479652"><ele>405.0</ele><time>2026-04-01T15:32:48Z</time></trkpt><trkpt lat="43.11730417851417" lon="1.1606078852328268"><ele>405.0</ele><time>2026-04-01T15:32:49Z</time></trkpt><trkpt lat="43.117446222762275" lon="1.1606352920933094"><ele>405.0</ele><time>2026-04-01T15:32:50Z</time></trkpt><trkpt lat="43.11755755856759" lon="1.160678230588266"><ele>405.0</ele><time>2026-04-01T15:32:51Z</time></trkpt><trkpt lat="43.11764604276723" lon="1.1607531235254367"><ele>404.2</ele><time>2026-04-01T15:32:52Z</time></trkpt><trkpt lat="43.11769912648198" lon="1.1608606250937603"><ele>403.4</ele><time>2026-04-01T15:32:53Z</time></trkpt><trkpt lat="43.117699262152605" lon="1.1609819198142717"><ele>402.6</ele><time>2026-04-01T15:32:54Z</time></trkpt><trkpt lat="43.117635300889795" lon="1.1611034715850574"><ele>401.8</ele><time>2026-04-01T15:32:55Z</time></trkpt><trkpt lat="43.11755287138403" lon="1.1612121354919251"><ele>401.0</ele><time>2026-04-01T15:32:56Z</time></trkpt><trkpt lat="43.1174278822407" lon="1.16132888064215"><ele>399.5</ele><time>2026-04-01T15:32:57Z</time></trkpt><trkpt lat="43.11731834261245" lon="1.1614624142927972"><ele>398.0</ele><time>2026-04-01T15:32:58Z</time></trkpt><trkpt lat="43.11721985210005" lon="1.1615798509917814"><ele>396.5</ele><time>2026-04-01T15:32:59Z</time></trkpt><trkpt lat="43.11715721268214" lon="1.1617176331356653"><ele>395.0</ele><time>2026-04-01T15:33:00Z</time></trkpt><trkpt lat="43.117119459793" lon="1.1618786106874022"><ele>393.3333333333333</ele><time>2026-04-01T15:33:01Z</time></trkpt><trkpt lat="43.1171210321328" lon="1.1620647342486297"><ele>391.66666666666663</ele><time>2026-04-01T15:33:02Z</time></trkpt><trkpt lat="43.11714782235242" lon="1.1622734642910049"><ele>390.0</ele><time>2026-04-01T15:33:03Z</time></trkpt><trkpt lat="43.11717782199125" lon="1.1624974276844748"><ele>390.0</ele><time>2026-04-01T15:33:04Z</time></trkpt><trkpt lat="43.117220575248666" lon="1.162688635737368"><ele>390.0</ele><time>2026-04-01T15:33:05Z</time></trkpt><trkpt lat="43.11730230166319" lon="1.1628620639098988"><ele>390.0</ele><time>2026-04-01T15:33:06Z</time></trkpt><trkpt lat="43.11743246464207" lon="1.1630193279605658"><ele>392.66666666666663</ele><time>2026-04-01T15:33:07Z</time></trkpt><trkpt lat="43.11757143669394" lon="1.1631589829679587"><ele>395.3333333333333</ele><time>2026-04-01T15:33:08Z</time></trkpt><trkpt lat="43.11767608682373" lon="1.163307011134594"><ele>398.0</ele><time>2026-04-01T15:33:09Z</time></trkpt><trkpt lat="43.1177352745096" lon="1.1634896679959108"><ele>398.0</ele><time>2026-04-01T15:33:10Z</time></trkpt><trkpt lat="43.11773367170515" lon="1.1636856266043134"><ele>398.0</ele><time>2026-04-01T15:33:11Z</time></trkpt><trkpt lat="43.11766303739199" lon="1.1638471012331824"><ele>398.0</ele><time>2026-04-01T15:33:12Z</time></trkpt><trkpt lat="43.11759257209347" lon="1.164002471176248"><ele>398.0</ele><time>2026-04-01T15:33:13Z</time></trkpt><trkpt lat="43.117536124475464" lon="1.1641565493204038"><ele>397.59999999999997</ele><time>2026-04-01T15:33:14Z</time></trkpt><trkpt lat="43.11747561788786" lon="1.16428539725306"><ele>397.2</ele><time>2026-04-01T15:33:15Z</time></trkpt><trkpt lat="43.117450074459214" lon="1.1644252876457382"><ele>396.8</ele><time>2026-04-01T15:33:16Z</time></trkpt><trkpt lat="43.11745202954847" lon="1.1645631053036485"><ele>396.4</ele><time>2026-04-01T15:33:17Z</time></trkpt><trkpt lat="43.117473757009954" lon="1.1646920112296653"><ele>396.0</ele><time>2026-04-01T15:33:18Z</time></trkpt><trkpt lat="43.11751186864925" lon="1.1648095473985385"><ele>395.4</ele><time>2026-04-01T15:33:19Z</time></trkpt><trkpt lat="43.11756003581958" lon="1.164928577659663"><ele>394.8</ele><time>2026-04-01T15:33:20Z</time></trkpt><trkpt lat="43.117616436771684" lon="1.1650551777790152"><ele>394.2</ele><time>2026-04-01T15:33:21Z</time></trkpt><trkpt lat="43.11767663318719" lon="1.165182524793721"><ele>393.59999999999997</ele><time>2026-04-01T15:33:22Z</time></trkpt><trkpt lat="43.11774206063401" lon="1.1653147822641168"><ele>393.0</ele><time>2026-04-01T15:33:23Z</time></trkpt><trkpt lat="43.117813385217325" lon="1.165448141247633"><ele>393.0</ele><time>2026-04-01T15:33:24Z</time></trkpt><trkpt lat="43.11788188245362" lon="1.1655878283389842"><ele>393.0</ele><time>2026-04-01T15:33:25Z</time></trkpt><trkpt lat="43.1179495007776" lon="1.1657300814401135"><ele>393.0</ele><time>2026-04-01T15:33:26Z</time></trkpt><trkpt lat="43.118016016689324" lon="1.1658680858805828"><ele>393.0</ele><time>2026-04-01T15:33:27Z</time></trkpt><trkpt lat="43.118076124256866" lon="1.1660022818402855"><ele>393.2</ele><time>2026-04-01T15:33:28Z</time></trkpt><trkpt lat="43.11813745492443" lon="1.1661241280138348"><ele>393.4</ele><time>2026-04-01T15:33:29Z</time></trkpt><trkpt lat="43.11819504616633" lon="1.166240183099236"><ele>393.59999999999997</ele><time>2026-04-01T15:33:30Z</time></trkpt><trkpt lat="43.11824760211974" lon="1.166351740169547"><ele>393.79999999999995</ele><time>2026-04-01T15:33:31Z</time></trkpt><trkpt lat="43.11829081905124" lon="1.1664628322339794"><ele>394.0</ele><time>2026-04-01T15:33:32Z</time></trkpt><trkpt lat="43.118318694866964" lon="1.1665681414244116"><ele>393.50000000000006</ele><time>2026-04-01T15:33:33Z</time></trkpt><trkpt lat="43.11833253643331" lon="1.1666688926444946"><ele>393.0</ele><time>2026-04-01T15:33:34Z</time></trkpt><trkpt lat="43.11833706795206" lon="1.1667641050777013"><ele>392.5</ele><time>2026-04-01T15:33:35Z</time></trkpt><trkpt lat="43.11832384060731" lon="1.1668552549134574"><ele>392.0</ele><time>2026-04-01T15:33:36Z</time></trkpt><trkpt lat="43.118285508096584" lon="1.1669615325047142"><ele>391.50000000000006</ele><time>2026-04-01T15:33:37Z</time></trkpt><trkpt lat="43.11822893486406" lon="1.1670924192578194"><ele>391.0</ele><time>2026-04-01T15:33:38Z</time></trkpt><trkpt lat="43.118171632927485" lon="1.1672247011925554"><ele>389.4</ele><time>2026-04-01T15:33:39Z</time></trkpt><trkpt lat="43.11811194209958" lon="1.1673629008380337"><ele>387.8</ele><time>2026-04-01T15:33:40Z</time></trkpt><trkpt lat="43.11805933153674" lon="1.167490178153878"><ele>386.2</ele><time>2026-04-01T15:33:41Z</time></trkpt><trkpt lat="43.1180210359933" lon="1.1676159334237748"><ele>384.59999999999997</ele><time>2026-04-01T15:33:42Z</time></trkpt><trkpt lat="43.11797629799848" lon="1.1677319282169203"><ele>383.0</ele><time>2026-04-01T15:33:43Z</time></trkpt><trkpt lat="43.117978328833516" lon="1.167860255591548"><ele>383.0</ele><time>2026-04-01T15:33:44Z</time></trkpt><trkpt lat="43.1179723482363" lon="1.1679845648126455"><ele>383.0</ele><time>2026-04-01T15:33:45Z</time></trkpt><trkpt lat="43.11797381008001" lon="1.1681207901726725"><ele>383.0</ele><time>2026-04-01T15:33:46Z</time></trkpt><trkpt lat="43.11797824977256" lon="1.16828898949948"><ele>383.0</ele><time>2026-04-01T15:33:47Z</time></trkpt><trkpt lat="43.117974450978046" lon="1.1684847277062953"><ele>383.75</ele><time>2026-04-01T15:33:48Z</time></trkpt><trkpt lat="43.11797342031239" lon="1.1686803898524398"><ele>384.5</ele><time>2026-04-01T15:33:49Z</time></trkpt><trkpt lat="43.11797472767127" lon="1.1688610594952604"><ele>385.25</ele><time>2026-04-01T15:33:50Z</time></trkpt><trkpt lat="43.1179766304272" lon="1.169043299102764"><ele>386.0</ele><time>2026-04-01T15:33:51Z</time></trkpt><trkpt lat="43.11797776147571" lon="1.169222239786653"><ele>386.0</ele><time>2026-04-01T15:33:52Z</time></trkpt><trkpt lat="43.11795342859719" lon="1.1693880972878528"><ele>386.0</ele><time>2026-04-01T15:33:53Z</time></trkpt><trkpt lat="43.1179313592029" lon="1.169551152050474"><ele>386.0</ele><time>2026-04-01T15:33:54Z</time></trkpt><trkpt lat="43.11792243345197" lon="1.169717396477722"><ele>386.0</ele><time>2026-04-01T15:33:55Z</time></trkpt><trkpt lat="43.11789690311182" lon="1.1698743551288684"><ele>386.0</ele><time>2026-04-01T15:33:56Z</time></trkpt><trkpt lat="43.117873946517896" lon="1.1700315247271045"><ele>386.0</ele><time>2026-04-01T15:33:57Z</time></trkpt><trkpt lat="43.11788282878381" lon="1.1702122016226888"><ele>386.0</ele><time>2026-04-01T15:33:58Z</time></trkpt><trkpt lat="43.117923674702084" lon="1.1704100180720887"><ele>386.0</ele><time>2026-04-01T15:33:59Z</time></trkpt><trkpt lat="43.11796820652847" lon="1.170610577396838"><ele>382.66666666666663</ele><time>2026-04-01T15:34:00Z</time></trkpt><trkpt lat="43.118014823454565" lon="1.1708189384587744"><ele>379.3333333333333</ele><time>2026-04-01T15:34:01Z</time></trkpt><trkpt lat="43.11805841605035" lon="1.1710293217220094"><ele>376.0</ele><time>2026-04-01T15:34:02Z</time></trkpt><trkpt lat="43.118096161669456" lon="1.171240518388289"><ele>376.0</ele><time>2026-04-01T15:34:03Z</time></trkpt><trkpt lat="43.11811947679572" lon="1.1714511488477832"><ele>376.0</ele><time>2026-04-01T15:34:04Z</time></trkpt><trkpt lat="43.11815171939305" lon="1.1716501405195905"><ele>376.0</ele><time>2026-04-01T15:34:05Z</time></trkpt><trkpt lat="43.11821985825466" lon="1.1718267233963133"><ele>374.5</ele><time>2026-04-01T15:34:06Z</time></trkpt><trkpt lat="43.118307369519755" lon="1.1719906691877033"><ele>373.0</ele><time>2026-04-01T15:34:07Z</time></trkpt><trkpt lat="43.118408719508594" lon="1.1721403154872765"><ele>371.5</ele><time>2026-04-01T15:34:08Z</time></trkpt><trkpt lat="43.11850487088032" lon="1.1722900150103905"><ele>370.0</ele><time>2026-04-01T15:34:09Z</time></trkpt><trkpt lat="43.11858950704018" lon="1.1724445146784894"><ele>370.0</ele><time>2026-04-01T15:34:10Z</time></trkpt><trkpt lat="43.118651101880545" lon="1.1726349231297348"><ele>370.0</ele><time>2026-04-01T15:34:11Z</time></trkpt><trkpt lat="43.11872787227345" lon="1.1728360639478739"><ele>370.0</ele><time>2026-04-01T15:34:12Z</time></trkpt><trkpt lat="43.118789476192134" lon="1.1730369286261302"><ele>368.66666666666663</ele><time>2026-04-01T15:34:13Z</time></trkpt><trkpt lat="43.11885033532507" lon="1.173232116367359"><ele>367.3333333333333</ele><time>2026-04-01T15:34:14Z</time></trkpt><trkpt lat="43.11890761556926" lon="1.1734210216169283"><ele>366.0</ele><time>2026-04-01T15:34:15Z</time></trkpt><trkpt lat="43.11895760065442" lon="1.1736112628475621"><ele>366.0</ele><time>2026-04-01T15:34:16Z</time></trkpt><trkpt lat="43.11899247713978" lon="1.17380630193457"><ele>366.0</ele><time>2026-04-01T15:34:17Z</time></trkpt><trkpt lat="43.119010942874" lon="1.1740023472703818"><ele>366.0</ele><time>2026-04-01T15:34:18Z</time></trkpt><trkpt lat="43.119018792821386" lon="1.174198506962495"><ele>366.0</ele><time>2026-04-01T15:34:19Z</time></trkpt><trkpt lat="43.119039075809816" lon="1.1743889007453745"><ele>363.6666666666667</ele><time>2026-04-01T15:34:20Z</time></trkpt><trkpt lat="43.11909845349766" lon="1.1745681565071593"><ele>361.33333333333337</ele><time>2026-04-01T15:34:21Z</time></trkpt><trkpt lat="43.11919985874505" lon="1.1747457320712824"><ele>359.0</ele><time>2026-04-01T15:34:22Z</time></trkpt><trkpt lat="43.11933739183893" lon="1.1749121050690023"><ele>358.0</ele><time>2026-04-01T15:34:23Z</time></trkpt><trkpt lat="43.11947169176825" lon="1.175047818227597"><ele>357.0</ele><time>2026-04-01T15:34:24Z</time></trkpt><trkpt lat="43.11959165624568" lon="1.1751748318652153"><ele>356.0</ele><time>2026-04-01T15:34:25Z</time></trkpt><trkpt lat="43.11969679051749" lon="1.175299201165473"><ele>356.0</ele><time>2026-04-01T15:34:26Z</time></trkpt><trkpt lat="43.119781581473006" lon="1.1754225673372365"><ele>356.0</ele><time>2026-04-01T15:34:27Z</time></trkpt><trkpt lat="43.119842924758316" lon="1.175561494724444"><ele>356.0</ele><time>2026-04-01T15:34:28Z</time></trkpt><trkpt lat="43.11985730176773" lon="1.175725119255282"><ele>356.0</ele><time>2026-04-01T15:34:29Z</time></trkpt><trkpt lat="43.11984878862328" lon="1.1758855885566366"><ele>355.25</ele><time>2026-04-01T15:34:30Z</time></trkpt><trkpt lat="43.11980242636481" lon="1.1760422247853075"><ele>354.5</ele><time>2026-04-01T15:34:31Z</time></trkpt><trkpt lat="43.119725661498975" lon="1.1761785766078172"><ele>353.75</ele><time>2026-04-01T15:34:32Z</time></trkpt><trkpt lat="43.11962925044229" lon="1.176306554795988"><ele>353.0</ele><time>2026-04-01T15:34:33Z</time></trkpt><trkpt lat="43.119538525553985" lon="1.1764647799387413"><ele>350.33333333333337</ele><time>2026-04-01T15:34:34Z</time></trkpt><trkpt lat="43.11944536346239" lon="1.1766333453918063"><ele>347.6666666666667</ele><time>2026-04-01T15:34:35Z</time></trkpt><trkpt lat="43.11937728417224" lon="1.1768241961487544"><ele>345.0</ele><time>2026-04-01T15:34:36Z</time></trkpt><trkpt lat="43.11928911864635" lon="1.176992997932748"><ele>345.0</ele><time>2026-04-01T15:34:37Z</time></trkpt><trkpt lat="43.119213163114246" lon="1.1771681821219326"><ele>345.0</ele><time>2026-04-01T15:34:38Z</time></trkpt><trkpt lat="43.119155873622496" lon="1.1773448171755683"><ele>345.0</ele><time>2026-04-01T15:34:39Z</time></trkpt><trkpt lat="43.119072427183625" lon="1.1774940892728085"><ele>345.0</ele><time>2026-04-01T15:34:40Z</time></trkpt><trkpt lat="43.11900799392546" lon="1.177650018473072"><ele>345.0</ele><time>2026-04-01T15:34:41Z</time></trkpt><trkpt lat="43.118951836909694" lon="1.1778092449525863"><ele>345.0</ele><time>2026-04-01T15:34:42Z</time></trkpt><trkpt lat="43.118916814283345" lon="1.1779728138537386"><ele>345.0</ele><time>2026-04-01T15:34:43Z</time></trkpt><trkpt lat="43.11887475138014" lon="1.178128505399833"><ele>345.0</ele><time>2026-04-01T15:34:44Z</time></trkpt><trkpt lat="43.118825308854" lon="1.1782754284625032"><ele>345.0</ele><time>2026-04-01T15:34:45Z</time></trkpt><trkpt lat="43.11879262219102" lon="1.1784232335974307"><ele>345.0</ele><time>2026-04-01T15:34:46Z</time></trkpt><trkpt lat="43.118757071431425" lon="1.1785839912255602"><ele>345.0</ele><time>2026-04-01T15:34:47Z</time></trkpt><trkpt lat="43.1187227991355" lon="1.1787514535489056"><ele>345.0</ele><time>2026-04-01T15:34:48Z</time></trkpt><trkpt lat="43.1186931933618" lon="1.1789099048034042"><ele>343.6</ele><time>2026-04-01T15:34:49Z</time></trkpt><trkpt lat="43.11868457450113" lon="1.179067504232245"><ele>342.2</ele><time>2026-04-01T15:34:50Z</time></trkpt><trkpt lat="43.1186670926588" lon="1.179211936518505"><ele>340.79999999999995</ele><time>2026-04-01T15:34:51Z</time></trkpt><trkpt lat="43.118654708808755" lon="1.1793510198001664"><ele>339.4</ele><time>2026-04-01T15:34:52Z</time></trkpt><trkpt lat="43.11864511984971" lon="1.1794783124977986"><ele>338.0</ele><time>2026-04-01T15:34:53Z</time></trkpt><trkpt lat="43.11863799125998" lon="1.179603733941442"><ele>338.0</ele><time>2026-04-01T15:34:54Z</time></trkpt><trkpt lat="43.11862649263289" lon="1.1797208935558687"><ele>338.0</ele><time>2026-04-01T15:34:55Z</time></trkpt><trkpt lat="43.118626101564196" lon="1.1798331789056018"><ele>338.0</ele><time>2026-04-01T15:34:56Z</time></trkpt><trkpt lat="43.11862947853191" lon="1.1799200057448145"><ele>338.0</ele><time>2026-04-01T15:34:57Z</time></trkpt><trkpt lat="43.118634556946695" lon="1.1800145654246212"><ele>338.0</ele><time>2026-04-01T15:35:00Z</time></trkpt><trkpt lat="43.11882282920569" lon="1.179955449032851"><ele>338.0</ele><time>2026-04-01T15:35:04Z</time></trkpt><trkpt lat="43.11890903333333" lon="1.1798595933836988"><ele>338.0</ele><time>2026-04-01T15:35:05Z</time></trkpt><trkpt lat="43.119009187606956" lon="1.1797768866221128"><ele>338.0</ele><time>2026-04-01T15:35:06Z</time></trkpt><trkpt lat="43.11911849989147" lon="1.1796940325263248"><ele>338.0</ele><time>2026-04-01T15:35:07Z</time></trkpt><trkpt lat="43.11922802605273" lon="1.1796064605583116"><ele>334.25</ele><time>2026-04-01T15:35:08Z</time></trkpt><trkpt lat="43.119338123062676" lon="1.1795239047003554"><ele>330.5</ele><time>2026-04-01T15:35:09Z</time></trkpt><trkpt lat="43.11944418799153" lon="1.1794437936698887"><ele>326.75</ele><time>2026-04-01T15:35:10Z</time></trkpt><trkpt lat="43.11954493227789" lon="1.17935857331862"><ele>323.0</ele><time>2026-04-01T15:35:11Z</time></trkpt><trkpt lat="43.119645375862895" lon="1.1792801454736253"><ele>323.0</ele><time>2026-04-01T15:35:12Z</time></trkpt><trkpt lat="43.11973668630691" lon="1.1792070775834422"><ele>323.0</ele><time>2026-04-01T15:35:13Z</time></trkpt><trkpt lat="43.11981844930233" lon="1.1791374513313713"><ele>323.0</ele><time>2026-04-01T15:35:14Z</time></trkpt><trkpt lat="43.119892126137906" lon="1.1790732013335343"><ele>323.0</ele><time>2026-04-01T15:35:15Z</time></trkpt><trkpt lat="43.1199689717633" lon="1.1790045087005685"><ele>323.0</ele><time>2026-04-01T15:35:16Z</time></trkpt><trkpt lat="43.12005072053976" lon="1.17893321828653"><ele>322.79999999999995</ele><time>2026-04-01T15:35:17Z</time></trkpt><trkpt lat="43.120128554608144" lon="1.1788696082847407"><ele>322.6</ele><time>2026-04-01T15:35:18Z</time></trkpt><trkpt lat="43.1201917009864" lon="1.178825047340533"><ele>322.4</ele><time>2026-04-01T15:35:19Z</time></trkpt><trkpt lat="43.12029830973297" lon="1.1787442032048578"><ele>322.20000000000005</ele><time>2026-04-01T15:35:21Z</time></trkpt><trkpt lat="43.12040818691225" lon="1.178640353168029"><ele>322.0</ele><time>2026-04-01T15:35:23Z</time></trkpt><trkpt lat="43.120482060824045" lon="1.1785899282953507"><ele>322.0</ele><time>2026-04-01T15:35:24Z</time></trkpt><trkpt lat="43.12055445592284" lon="1.1785502873171139"><ele>322.0</ele><time>2026-04-01T15:35:25Z</time></trkpt><trkpt lat="43.120613856750026" lon="1.1785087779504884"><ele>322.0</ele><time>2026-04-01T15:35:26Z</time></trkpt><trkpt lat="43.12066900246079" lon="1.178463018127634"><ele>322.0</ele><time>2026-04-01T15:35:27Z</time></trkpt><trkpt lat="43.12077698231289" lon="1.1783691828058256"><ele>322.0</ele><time>2026-04-01T15:35:29Z</time></trkpt><trkpt lat="43.12084671458484" lon="1.1783123255941077"><ele>322.0</ele><time>2026-04-01T15:35:30Z</time></trkpt><trkpt lat="43.120920689905724" lon="1.178250406094916"><ele>322.16666666666663</ele><time>2026-04-01T15:35:31Z</time></trkpt><trkpt lat="43.12099612836326" lon="1.1781813602620541"><ele>322.3333333333333</ele><time>2026-04-01T15:35:32Z</time></trkpt><trkpt lat="43.12107465792346" lon="1.1781183261496244"><ele>322.5</ele><time>2026-04-01T15:35:33Z</time></trkpt><trkpt lat="43.121149778663884" lon="1.1780625455326976"><ele>322.6666666666667</ele><time>2026-04-01T15:35:34Z</time></trkpt><trkpt lat="43.12121989432966" lon="1.178007188110121"><ele>322.83333333333337</ele><time>2026-04-01T15:35:35Z</time></trkpt><trkpt lat="43.1212871123933" lon="1.177957008371379"><ele>323.0</ele><time>2026-04-01T15:35:36Z</time></trkpt><trkpt lat="43.12135249762017" lon="1.1779066890103027"><ele>323.0</ele><time>2026-04-01T15:35:37Z</time></trkpt><trkpt lat="43.12141490488574" lon="1.1778569281127056"><ele>323.0</ele><time>2026-04-01T15:35:38Z</time></trkpt><trkpt lat="43.121475619078296" lon="1.177805824947849"><ele>323.0</ele><time>2026-04-01T15:35:39Z</time></trkpt><trkpt lat="43.12153561677278" lon="1.1777599740305935"><ele>323.0</ele><time>2026-04-01T15:35:40Z</time></trkpt><trkpt lat="43.121600576187404" lon="1.1777062341903368"><ele>323.0</ele><time>2026-04-01T15:35:41Z</time></trkpt><trkpt lat="43.121668754031276" lon="1.1776465385725028"><ele>323.0</ele><time>2026-04-01T15:35:42Z</time></trkpt><trkpt lat="43.12174543507563" lon="1.17758712759463"><ele>322.79999999999995</ele><time>2026-04-01T15:35:43Z</time></trkpt><trkpt lat="43.12182509475079" lon="1.1775211569051072"><ele>322.6</ele><time>2026-04-01T15:35:44Z</time></trkpt><trkpt lat="43.12191258704869" lon="1.1774566484224795"><ele>322.4</ele><time>2026-04-01T15:35:45Z</time></trkpt><trkpt lat="43.12201790326383" lon="1.1773678109182546"><ele>322.20000000000005</ele><time>2026-04-01T15:35:46Z</time></trkpt><trkpt lat="43.12212229946189" lon="1.1772681374142633"><ele>322.0</ele><time>2026-04-01T15:35:47Z</time></trkpt><trkpt lat="43.122201061681395" lon="1.1771759740341883"><ele>322.0</ele><time>2026-04-01T15:35:48Z</time></trkpt><trkpt lat="43.12226917737148" lon="1.1770880892821989"><ele>322.0</ele><time>2026-04-01T15:35:49Z</time></trkpt><trkpt lat="43.122330453773394" lon="1.1770047754143442"><ele>322.0</ele><time>2026-04-01T15:35:50Z</time></trkpt><trkpt lat="43.12238902619292" lon="1.1769116043657422"><ele>322.0</ele><time>2026-04-01T15:35:51Z</time></trkpt><trkpt lat="43.12245663540678" lon="1.1768041907465723"><ele>322.0</ele><time>2026-04-01T15:35:52Z</time></trkpt><trkpt lat="43.12253383319101" lon="1.1766894407438846"><ele>322.0</ele><time>2026-04-01T15:35:53Z</time></trkpt><trkpt lat="43.12261519368319" lon="1.176580317221325"><ele>322.0</ele><time>2026-04-01T15:35:54Z</time></trkpt><trkpt lat="43.122689464889305" lon="1.176468255271833"><ele>322.0</ele><time>2026-04-01T15:35:55Z</time></trkpt><trkpt lat="43.12276106889864" lon="1.1763640097402435"><ele>322.0</ele><time>2026-04-01T15:35:56Z</time></trkpt><trkpt lat="43.12283492064165" lon="1.176267150717151"><ele>322.0</ele><time>2026-04-01T15:35:57Z</time></trkpt><trkpt lat="43.12290960619486" lon="1.176172391857068"><ele>321.6</ele><time>2026-04-01T15:35:58Z</time></trkpt><trkpt lat="43.12298310954971" lon="1.1760636957742914"><ele>321.20000000000005</ele><time>2026-04-01T15:35:59Z</time></trkpt><trkpt lat="43.12305758006695" lon="1.175945364771515"><ele>320.8</ele><time>2026-04-01T15:36:00Z</time></trkpt><trkpt lat="43.12313295864989" lon="1.1758374540248804"><ele>320.4</ele><time>2026-04-01T15:36:01Z</time></trkpt><trkpt lat="43.1232047412122" lon="1.1757222632682574"><ele>320.0</ele><time>2026-04-01T15:36:02Z</time></trkpt><trkpt lat="43.12327519381181" lon="1.1756130707518035"><ele>320.0</ele><time>2026-04-01T15:36:03Z</time></trkpt><trkpt lat="43.12334587788896" lon="1.1755088920163024"><ele>320.0</ele><time>2026-04-01T15:36:04Z</time></trkpt><trkpt lat="43.12340947241416" lon="1.1754107981868385"><ele>320.0</ele><time>2026-04-01T15:36:05Z</time></trkpt><trkpt lat="43.123482905653916" lon="1.1753148508531766"><ele>320.0</ele><time>2026-04-01T15:36:06Z</time></trkpt><trkpt lat="43.12354372607835" lon="1.1752370832516943"><ele>320.0</ele><time>2026-04-01T15:36:07Z</time></trkpt><trkpt lat="43.12360641166219" lon="1.1751576807433721"><ele>320.0</ele><time>2026-04-01T15:36:08Z</time></trkpt><trkpt lat="43.12366598776901" lon="1.1750831704096594"><ele>320.0</ele><time>2026-04-01T15:36:09Z</time></trkpt><trkpt lat="43.12372095385735" lon="1.1750063116618774"><ele>320.0</ele><time>2026-04-01T15:36:10Z</time></trkpt><trkpt lat="43.12377758435525" lon="1.174936924426506"><ele>320.0</ele><time>2026-04-01T15:36:11Z</time></trkpt><trkpt lat="43.12383516076721" lon="1.174868127987731"><ele>320.0</ele><time>2026-04-01T15:36:12Z</time></trkpt><trkpt lat="43.12389139937306" lon="1.174790417610837"><ele>320.0</ele><time>2026-04-01T15:36:13Z</time></trkpt><trkpt lat="43.12394446623824" lon="1.1747114518304747"><ele>318.0</ele><time>2026-04-01T15:36:14Z</time></trkpt><trkpt lat="43.12399974992515" lon="1.1746375305805294"><ele>316.0</ele><time>2026-04-01T15:36:15Z</time></trkpt><trkpt lat="43.12405525217836" lon="1.1745603570938365"><ele>314.0</ele><time>2026-04-01T15:36:16Z</time></trkpt><trkpt lat="43.1241144755992" lon="1.1744777129712105"><ele>312.0</ele><time>2026-04-01T15:36:17Z</time></trkpt><trkpt lat="43.124175162968136" lon="1.1743977115103537"><ele>310.0</ele><time>2026-04-01T15:36:18Z</time></trkpt><trkpt lat="43.124231712452456" lon="1.1743167478209946"><ele>308.0</ele><time>2026-04-01T15:36:19Z</time></trkpt><trkpt lat="43.12429351295704" lon="1.17423198117298"><ele>308.0</ele><time>2026-04-01T15:36:20Z</time></trkpt><trkpt lat="43.12434201672279" lon="1.174153582908615"><ele>308.0</ele><time>2026-04-01T15:36:21Z</time></trkpt><trkpt lat="43.124399142564485" lon="1.1740821705080753"><ele>308.0</ele><time>2026-04-01T15:36:23Z</time></trkpt><trkpt lat="43.12454361598916" lon="1.174160244542657"><ele>308.0</ele><time>2026-04-01T15:36:27Z</time></trkpt><trkpt lat="43.124634099195575" lon="1.1742434158121418"><ele>308.0</ele><time>2026-04-01T15:36:29Z</time></trkpt><trkpt lat="43.124716993813905" lon="1.1743114870933258"><ele>308.0</ele><time>2026-04-01T15:36:31Z</time></trkpt><trkpt lat="43.124802088246405" lon="1.1743838723383595"><ele>308.0</ele><time>2026-04-01T15:36:33Z</time></trkpt><trkpt lat="43.12488091981728" lon="1.1744510427365764"><ele>308.0</ele><time>2026-04-01T15:36:35Z</time></trkpt><trkpt lat="43.12495103799127" lon="1.1745129899407516"><ele>308.0</ele><time>2026-04-01T15:36:37Z</time></trkpt><trkpt lat="43.12503942529199" lon="1.1745769379681545"><ele>308.0</ele><time>2026-04-01T15:36:39Z</time></trkpt><trkpt lat="43.125133765955454" lon="1.1746382785981668"><ele>307.1666666666667</ele><time>2026-04-01T15:36:41Z</time></trkpt><trkpt lat="43.12521754227954" lon="1.17469148817543"><ele>306.33333333333337</ele><time>2026-04-01T15:36:43Z</time></trkpt><trkpt lat="43.12529686333781" lon="1.1747678956081116"><ele>305.5</ele><time>2026-04-01T15:36:45Z</time></trkpt><trkpt lat="43.125353119025014" lon="1.1748357554014777"><ele>304.6666666666667</ele><time>2026-04-01T15:36:47Z</time></trkpt><trkpt lat="43.125417889730286" lon="1.174881152930599"><ele>303.8333333333333</ele><time>2026-04-01T15:36:52Z</time></trkpt><trkpt lat="43.12538594278988" lon="1.1749953774398696"><ele>303.0</ele><time>2026-04-01T15:36:53Z</time></trkpt><trkpt lat="43.12541776234871" lon="1.1751429025894689"><ele>303.0</ele><time>2026-04-01T15:36:55Z</time></trkpt><trkpt lat="43.12544708514573" lon="1.1752988779527782"><ele>303.0</ele><time>2026-04-01T15:36:57Z</time></trkpt><trkpt lat="43.12543288283412" lon="1.1753877411784106"><ele>303.0</ele><time>2026-04-01T15:36:58Z</time></trkpt><trkpt lat="43.12544527657373" lon="1.1755479614873288"><ele>303.0</ele><time>2026-04-01T15:37:00Z</time></trkpt><trkpt lat="43.12542432210027" lon="1.1756853624258936"><ele>303.0</ele><time>2026-04-01T15:37:02Z</time></trkpt><trkpt lat="43.125374811897125" lon="1.1757662502580348"><ele>303.4</ele><time>2026-04-01T15:37:04Z</time></trkpt><trkpt lat="43.1252802217491" lon="1.1758773431830107"><ele>303.8</ele><time>2026-04-01T15:37:06Z</time></trkpt><trkpt lat="43.12521698088792" lon="1.1759537208506188"><ele>304.2</ele><time>2026-04-01T15:37:08Z</time></trkpt><trkpt lat="43.12517237785953" lon="1.1760703782239539"><ele>304.6</ele><time>2026-04-01T15:37:10Z</time></trkpt><trkpt lat="43.12512451570153" lon="1.1761996324871817"><ele>305.0</ele><time>2026-04-01T15:37:12Z</time></trkpt><trkpt lat="43.12508257847538" lon="1.1763560628325513"><ele>305.0</ele><time>2026-04-01T15:37:14Z</time></trkpt><trkpt lat="43.12506393579944" lon="1.1764392254588218"><ele>305.0</ele><time>2026-04-01T15:37:15Z</time></trkpt><trkpt lat="43.12504601518521" lon="1.1765252665099921"><ele>305.0</ele><time>2026-04-01T15:37:16Z</time></trkpt><trkpt lat="43.12503221688723" lon="1.1766640388373233"><ele>305.0</ele><time>2026-04-01T15:37:18Z</time></trkpt><trkpt lat="43.125011421440966" lon="1.1767581438183163"><ele>305.0</ele><time>2026-04-01T15:37:20Z</time></trkpt><trkpt lat="43.12508849474986" lon="1.1767635591377195"><ele>305.0</ele><time>2026-04-01T15:37:23Z</time></trkpt><trkpt lat="43.12544920523375" lon="1.1765433753283916"><ele>305.0</ele><time>2026-04-01T15:37:26Z</time></trkpt><trkpt lat="43.12545219377354" lon="1.1764417242579421"><ele>305.0</ele><time>2026-04-01T15:37:27Z</time></trkpt><trkpt lat="43.1254569259456" lon="1.176339343517891"><ele>305.0</ele><time>2026-04-01T15:37:28Z</time></trkpt><trkpt lat="43.12546211102013" lon="1.1762271642643027"><ele>305.0</ele><time>2026-04-01T15:37:29Z</time></trkpt><trkpt lat="43.12546692565114" lon="1.176120968269348"><ele>305.0</ele><time>2026-04-01T15:37:30Z</time></trkpt><trkpt lat="43.12547115564813" lon="1.1760263896369216"><ele>305.0</ele><time>2026-04-01T15:37:31Z</time></trkpt><trkpt lat="43.1254739872314" lon="1.175935969445169"><ele>305.0</ele><time>2026-04-01T15:37:32Z</time></trkpt><trkpt lat="43.12547781014236" lon="1.1758000744744264"><ele>304.6666666666667</ele><time>2026-04-01T15:37:34Z</time></trkpt><trkpt lat="43.12545134682204" lon="1.175643539083915"><ele>304.33333333333337</ele><time>2026-04-01T15:37:36Z</time></trkpt><trkpt lat="43.125460658651626" lon="1.1755577309727963"><ele>304.0</ele><time>2026-04-01T15:37:37Z</time></trkpt><trkpt lat="43.12546509445229" lon="1.1754691604656713"><ele>303.6666666666667</ele><time>2026-04-01T15:37:38Z</time></trkpt><trkpt lat="43.12547186781545" lon="1.175369112815563"><ele>303.3333333333333</ele><time>2026-04-01T15:37:39Z</time></trkpt><trkpt lat="43.1254664879831" lon="1.175276917742289"><ele>303.0</ele><time>2026-04-01T15:37:40Z</time></trkpt><trkpt lat="43.125450914403615" lon="1.175190067267757"><ele>303.0</ele><time>2026-04-01T15:37:41Z</time></trkpt><trkpt lat="43.125417977717596" lon="1.1750063497919954"><ele>303.0</ele><time>2026-04-01T15:37:43Z</time></trkpt><trkpt lat="43.12540645718203" lon="1.1749143237223059"><ele>303.0</ele><time>2026-04-01T15:37:44Z</time></trkpt><trkpt lat="43.12540665653642" lon="1.1748272548232555"><ele>303.0</ele><time>2026-04-01T15:37:45Z</time></trkpt><trkpt lat="43.125444945882805" lon="1.1746853054088644"><ele>303.0</ele><time>2026-04-01T15:37:47Z</time></trkpt><trkpt lat="43.12551959866496" lon="1.174557001960579"><ele>302.8333333333333</ele><time>2026-04-01T15:37:49Z</time></trkpt><trkpt lat="43.12557206480641" lon="1.1744869928373016"><ele>302.6666666666667</ele><time>2026-04-01T15:37:50Z</time></trkpt><trkpt lat="43.12562899508812" lon="1.1744179093706035"><ele>302.5</ele><time>2026-04-01T15:37:51Z</time></trkpt><trkpt lat="43.1256879339665" lon="1.1743519353248932"><ele>302.33333333333337</ele><time>2026-04-01T15:37:52Z</time></trkpt><trkpt lat="43.12574551411558" lon="1.174286205171603"><ele>302.1666666666667</ele><time>2026-04-01T15:37:53Z</time></trkpt><trkpt lat="43.12580530497997" lon="1.1742206329640112"><ele>302.0</ele><time>2026-04-01T15:37:54Z</time></trkpt><trkpt lat="43.125868667643324" lon="1.1741570220434046"><ele>302.1666666666667</ele><time>2026-04-01T15:37:55Z</time></trkpt><trkpt lat="43.125931892697835" lon="1.1740951151653727"><ele>302.33333333333337</ele><time>2026-04-01T15:37:56Z</time></trkpt><trkpt lat="43.12599588793468" lon="1.1740270723426842"><ele>302.5</ele><time>2026-04-01T15:37:57Z</time></trkpt><trkpt lat="43.12605252598246" lon="1.1739627013889746"><ele>302.6666666666667</ele><time>2026-04-01T15:37:58Z</time></trkpt><trkpt lat="43.126102795849754" lon="1.17390821698337"><ele>302.8333333333333</ele><time>2026-04-01T15:37:59Z</time></trkpt><trkpt lat="43.12618394299244" lon="1.173844100349932"><ele>303.0</ele><time>2026-04-01T15:38:01Z</time></trkpt><trkpt lat="43.12624816513208" lon="1.1737940095024426"><ele>303.0</ele><time>2026-04-01T15:38:03Z</time></trkpt><trkpt lat="43.12634479862437" lon="1.1737212653940443"><ele>303.0</ele><time>2026-04-01T15:38:05Z</time></trkpt><trkpt lat="43.12644978865636" lon="1.1735995106163961"><ele>303.0</ele><time>2026-04-01T15:38:07Z</time></trkpt><trkpt lat="43.126510066603025" lon="1.1735266372674384"><ele>303.0</ele><time>2026-04-01T15:38:08Z</time></trkpt><trkpt lat="43.1265753690314" lon="1.1734481087563573"><ele>303.0</ele><time>2026-04-01T15:38:09Z</time></trkpt><trkpt lat="43.126643297767714" lon="1.1733729289364356"><ele>303.1666666666667</ele><time>2026-04-01T15:38:10Z</time></trkpt><trkpt lat="43.12670459424018" lon="1.1733050893698838"><ele>303.3333333333333</ele><time>2026-04-01T15:38:11Z</time></trkpt><trkpt lat="43.12676641228614" lon="1.1732376081079838"><ele>303.5</ele><time>2026-04-01T15:38:12Z</time></trkpt><trkpt lat="43.12682550017843" lon="1.1731690519875018"><ele>303.66666666666663</ele><time>2026-04-01T15:38:13Z</time></trkpt><trkpt lat="43.126880575417545" lon="1.1730998942951558"><ele>303.8333333333333</ele><time>2026-04-01T15:38:14Z</time></trkpt><trkpt lat="43.12691382803798" lon="1.1729959784896429"><ele>304.0</ele><time>2026-04-01T15:38:15Z</time></trkpt><trkpt lat="43.126963676653155" lon="1.172929485810481"><ele>303.66666666666663</ele><time>2026-04-01T15:38:16Z</time></trkpt><trkpt lat="43.12700127306792" lon="1.172857009637744"><ele>303.3333333333333</ele><time>2026-04-01T15:38:17Z</time></trkpt><trkpt lat="43.12707201312154" lon="1.172746773217208"><ele>303.0</ele><time>2026-04-01T15:38:19Z</time></trkpt><trkpt lat="43.12701296299906" lon="1.1727145855269094"><ele>302.6666666666667</ele><time>2026-04-01T15:38:25Z</time></trkpt><trkpt lat="43.126953797695215" lon="1.1728715311712041"><ele>302.33333333333337</ele><time>2026-04-01T15:38:27Z</time></trkpt><trkpt lat="43.126917856161015" lon="1.172963285379073"><ele>302.0</ele><time>2026-04-01T15:38:28Z</time></trkpt><trkpt lat="43.126869061509574" lon="1.1730476369986176"><ele>302.0</ele><time>2026-04-01T15:38:29Z</time></trkpt><trkpt lat="43.12680850045905" lon="1.1731381945871828"><ele>302.0</ele><time>2026-04-01T15:38:30Z</time></trkpt><trkpt lat="43.12673627227556" lon="1.1732295741701915"><ele>302.0</ele><time>2026-04-01T15:38:31Z</time></trkpt><trkpt lat="43.126656382903526" lon="1.1733216142010423"><ele>302.0</ele><time>2026-04-01T15:38:32Z</time></trkpt><trkpt lat="43.126582948460964" lon="1.1734043187860919"><ele>302.0</ele><time>2026-04-01T15:38:33Z</time></trkpt><trkpt lat="43.12651463104008" lon="1.1734795392211048"><ele>302.1666666666667</ele><time>2026-04-01T15:38:34Z</time></trkpt><trkpt lat="43.12645101618731" lon="1.1735495785928314"><ele>302.33333333333337</ele><time>2026-04-01T15:38:35Z</time></trkpt><trkpt lat="43.126390589691866" lon="1.1736208951754745"><ele>302.5</ele><time>2026-04-01T15:38:36Z</time></trkpt><trkpt lat="43.12633739392121" lon="1.1736850927018938"><ele>302.6666666666667</ele><time>2026-04-01T15:38:37Z</time></trkpt><trkpt lat="43.12628337727053" lon="1.1737314243531065"><ele>302.8333333333333</ele><time>2026-04-01T15:38:38Z</time></trkpt><trkpt lat="43.126197931738105" lon="1.17378792097919"><ele>303.0</ele><time>2026-04-01T15:38:40Z</time></trkpt><trkpt lat="43.12613489310304" lon="1.1738783914898963"><ele>303.0</ele><time>2026-04-01T15:38:43Z</time></trkpt><trkpt lat="43.1260857245638" lon="1.1739630321831878"><ele>303.0</ele><time>2026-04-01T15:38:46Z</time></trkpt><trkpt lat="43.12608827597118" lon="1.1738768268503554"><ele>303.0</ele><time>2026-04-01T15:39:10Z</time></trkpt><trkpt lat="43.12599590362947" lon="1.1739207762079664"><ele>303.0</ele><time>2026-04-01T15:39:55Z</time></trkpt><trkpt lat="43.12590439030963" lon="1.1739967761014776"><ele>303.0</ele><time>2026-04-01T15:39:57Z</time></trkpt><trkpt lat="43.1258149868074" lon="1.174075627514529"><ele>303.1666666666667</ele><time>2026-04-01T15:39:59Z</time></trkpt><trkpt lat="43.12576119747848" lon="1.1741334163574633"><ele>303.3333333333333</ele><time>2026-04-01T15:40:00Z</time></trkpt><trkpt lat="43.1257097029065" lon="1.1741948953355366"><ele>303.5</ele><time>2026-04-01T15:40:01Z</time></trkpt><trkpt lat="43.12563175517179" lon="1.1742968035536456"><ele>303.66666666666663</ele><time>2026-04-01T15:40:03Z</time></trkpt><trkpt lat="43.1255704156985" lon="1.1743772830058052"><ele>303.8333333333333</ele><time>2026-04-01T15:40:05Z</time></trkpt><trkpt lat="43.12549947934795" lon="1.1744745937685752"><ele>304.0</ele><time>2026-04-01T15:40:07Z</time></trkpt><trkpt lat="43.12543763960553" lon="1.1745743328017972"><ele>303.66666666666663</ele><time>2026-04-01T15:40:09Z</time></trkpt><trkpt lat="43.125394170016044" lon="1.1746505103651488"><ele>303.3333333333333</ele><time>2026-04-01T15:40:11Z</time></trkpt><trkpt lat="43.12534325426323" lon="1.1747045032371703"><ele>303.0</ele><time>2026-04-01T15:40:13Z</time></trkpt><trkpt lat="43.125274532793334" lon="1.1746971911626194"><ele>302.6666666666667</ele><time>2026-04-01T15:40:15Z</time></trkpt><trkpt lat="43.125156174419786" lon="1.174636323734692"><ele>302.33333333333337</ele><time>2026-04-01T15:40:17Z</time></trkpt><trkpt lat="43.1250880427576" lon="1.174580112797982"><ele>302.0</ele><time>2026-04-01T15:40:18Z</time></trkpt><trkpt lat="43.125028360383496" lon="1.1745327783639505"><ele>302.0</ele><time>2026-04-01T15:40:19Z</time></trkpt><trkpt lat="43.124932515732134" lon="1.1744612724716559"><ele>302.0</ele><time>2026-04-01T15:40:21Z</time></trkpt><trkpt lat="43.1248807402876" lon="1.1745546357406726"><ele>302.0</ele><time>2026-04-01T15:40:24Z</time></trkpt><trkpt lat="43.124842262522364" lon="1.1746971834857296"><ele>302.0</ele><time>2026-04-01T15:40:26Z</time></trkpt><trkpt lat="43.124783493462765" lon="1.1748370579648957"><ele>302.0</ele><time>2026-04-01T15:40:28Z</time></trkpt><trkpt lat="43.12474090180139" lon="1.17496217529402"><ele>301.83333333333337</ele><time>2026-04-01T15:40:30Z</time></trkpt><trkpt lat="43.1246946997188" lon="1.175067530590787"><ele>301.6666666666667</ele><time>2026-04-01T15:40:32Z</time></trkpt><trkpt lat="43.124664336150495" lon="1.175154617029827"><ele>301.5</ele><time>2026-04-01T15:40:34Z</time></trkpt><trkpt lat="43.12467216789579" lon="1.1752404171894213"><ele>301.3333333333333</ele><time>2026-04-01T15:40:36Z</time></trkpt><trkpt lat="43.12466315500117" lon="1.1753583335847404"><ele>301.16666666666663</ele><time>2026-04-01T15:40:38Z</time></trkpt><trkpt lat="43.12469582853113" lon="1.1754490731010594"><ele>301.0</ele><time>2026-04-01T15:40:40Z</time></trkpt><trkpt lat="43.124778048751644" lon="1.1754783912848148"><ele>301.0</ele><time>2026-04-01T15:40:43Z</time></trkpt><trkpt lat="43.12484290661366" lon="1.1754733013004341"><ele>301.0</ele><time>2026-04-01T15:40:47Z</time></trkpt><trkpt lat="43.12484946269952" lon="1.1755783399804203"><ele>301.0</ele><time>2026-04-01T15:40:51Z</time></trkpt><trkpt lat="43.12476100912773" lon="1.1755761127759095"><ele>301.0</ele><time>2026-04-01T15:40:54Z</time></trkpt><trkpt lat="43.12476697638987" lon="1.1754831420613565"><ele>301.0</ele><time>2026-04-01T15:40:56Z</time></trkpt><trkpt lat="43.124816194645156" lon="1.175360674085608"><ele>301.0</ele><time>2026-04-01T15:40:58Z</time></trkpt><trkpt lat="43.12484353198289" lon="1.1752342159869462"><ele>301.0</ele><time>2026-04-01T15:41:00Z</time></trkpt><trkpt lat="43.12487899871357" lon="1.1750938092087357"><ele>301.0</ele><time>2026-04-01T15:41:02Z</time></trkpt><trkpt lat="43.124912150408875" lon="1.174989779193567"><ele>301.0</ele><time>2026-04-01T15:41:04Z</time></trkpt><trkpt lat="43.12494645123357" lon="1.17485583733674"><ele>301.0</ele><time>2026-04-01T15:41:07Z</time></trkpt><trkpt lat="43.12498638151773" lon="1.1747599533316762"><ele>301.0</ele><time>2026-04-01T15:41:09Z</time></trkpt><trkpt lat="43.12500261283467" lon="1.1746703984170717"><ele>301.0</ele><time>2026-04-01T15:41:11Z</time></trkpt><trkpt lat="43.12505479461876" lon="1.174602622248118"><ele>301.16666666666663</ele><time>2026-04-01T15:41:19Z</time></trkpt><trkpt lat="43.12515391963802" lon="1.1746485566386822"><ele>301.3333333333333</ele><time>2026-04-01T15:41:22Z</time></trkpt><trkpt lat="43.125224317546085" lon="1.1747045134054244"><ele>301.5</ele><time>2026-04-01T15:41:24Z</time></trkpt><trkpt lat="43.125170068090014" lon="1.1746570797667781"><ele>301.6666666666667</ele><time>2026-04-01T15:41:59Z</time></trkpt><trkpt lat="43.12510666448136" lon="1.1746495161924504"><ele>301.83333333333337</ele><time>2026-04-01T15:42:03Z</time></trkpt><trkpt lat="43.125128147136884" lon="1.1747374601904732"><ele>302.0</ele><time>2026-04-01T15:42:13Z</time></trkpt><trkpt lat="43.12510657370012" lon="1.1748267384739037"><ele>302.00000000000006</ele><time>2026-04-01T15:42:23Z</time></trkpt><trkpt lat="43.125092845541154" lon="1.1747281768467328"><ele>302.0</ele><time>2026-04-01T15:42:31Z</time></trkpt><trkpt lat="43.12509489516379" lon="1.17462719720091"><ele>302.0</ele><time>2026-04-01T15:42:45Z</time></trkpt><trkpt lat="43.12514990655799" lon="1.1746710393155004"><ele>302.0</ele><time>2026-04-01T15:44:25Z</time></trkpt><trkpt lat="43.125210311633346" lon="1.174719556242417"><ele>302.0</ele><time>2026-04-01T15:47:31Z</time></trkpt><trkpt lat="43.125264464739345" lon="1.1747793966748672"><ele>302.00000000000006</ele><time>2026-04-01T15:47:41Z</time></trkpt><trkpt lat="43.12530734623898" lon="1.1748448583332576"><ele>302.0</ele><time>2026-04-01T15:47:51Z</time></trkpt><trkpt lat="43.125352182207244" lon="1.174772681656372"><ele>302.0</ele><time>2026-04-01T15:48:05Z</time></trkpt><trkpt lat="43.12535632549868" lon="1.1749657605028458"><ele>302.0</ele><time>2026-04-01T15:48:51.176Z</time></trkpt><trkpt lat="43.125284053564215" lon="1.1749647738235443"><ele>302.0</ele><time>2026-04-01T15:48:57Z</time></trkpt><trkpt lat="43.125301479686485" lon="1.1748805921335834"><ele>302.0</ele><time>2026-04-01T15:49:00Z</time></trkpt><trkpt lat="43.125341123350196" lon="1.1748015000706526"><ele>302.0</ele><time>2026-04-01T15:49:03Z</time></trkpt><trkpt lat="43.125404441354846" lon="1.174761670635864"><ele>302.0</ele><time>2026-04-01T15:51:03Z</time></trkpt><trkpt lat="43.12537342167585" lon="1.1746806590592234"><ele>302.0</ele><time>2026-04-01T15:51:41Z</time></trkpt><trkpt lat="43.12532987663073" lon="1.174783606273893"><ele>302.0</ele><time>2026-04-01T15:52:17Z</time></trkpt><trkpt lat="43.12527650485856" lon="1.1747352037760979"><ele>302.0</ele><time>2026-04-01T15:52:40Z</time></trkpt><trkpt lat="43.12518416910458" lon="1.1746647445370577"><ele>302.0</ele><time>2026-04-01T15:53:51Z</time></trkpt><trkpt lat="43.12510803832258" lon="1.1746322093693928"><ele>302.0</ele><time>2026-04-01T15:53:52Z</time></trkpt><trkpt lat="43.125051068367405" lon="1.1745838991353732"><ele>302.0</ele><time>2026-04-01T15:53:53Z</time></trkpt><trkpt lat="43.124983018546224" lon="1.1745128096559492"><ele>302.0</ele><time>2026-04-01T15:53:55Z</time></trkpt><trkpt lat="43.124912854916815" lon="1.1744999148995994"><ele>302.0</ele><time>2026-04-01T15:54:06Z</time></trkpt><trkpt lat="43.12479815590613" lon="1.1744180904825008"><ele>302.0</ele><time>2026-04-01T15:54:08Z</time></trkpt><trkpt lat="43.124743490801336" lon="1.174371697478202"><ele>302.0</ele><time>2026-04-01T15:54:09Z</time></trkpt><trkpt lat="43.124640466492345" lon="1.1742830101959951"><ele>302.0</ele><time>2026-04-01T15:54:11Z</time></trkpt><trkpt lat="43.12454228559096" lon="1.1742000874795497"><ele>303.0</ele><time>2026-04-01T15:54:13Z</time></trkpt><trkpt lat="43.124466786892306" lon="1.1741312865934033"><ele>304.0</ele><time>2026-04-01T15:54:15Z</time></trkpt><trkpt lat="43.12438998984037" lon="1.1740985289256665"><ele>305.0</ele><time>2026-04-01T15:54:17Z</time></trkpt><trkpt lat="43.12429160760676" lon="1.1741651770624988"><ele>306.0</ele><time>2026-04-01T15:54:19Z</time></trkpt><trkpt lat="43.124239978656135" lon="1.1742419883399637"><ele>307.0</ele><time>2026-04-01T15:54:20Z</time></trkpt><trkpt lat="43.12418727880542" lon="1.1743290737500205"><ele>308.0</ele><time>2026-04-01T15:54:21Z</time></trkpt><trkpt lat="43.124127715760295" lon="1.1744201410906197"><ele>311.0</ele><time>2026-04-01T15:54:22Z</time></trkpt><trkpt lat="43.12404045400721" lon="1.1745002795722097"><ele>314.0</ele><time>2026-04-01T15:54:23Z</time></trkpt><trkpt lat="43.1239564597125" lon="1.1746172526767555"><ele>317.0</ele><time>2026-04-01T15:54:24Z</time></trkpt><trkpt lat="43.12387000889202" lon="1.1747422672977406"><ele>320.0</ele><time>2026-04-01T15:54:25Z</time></trkpt><trkpt lat="43.12377740046035" lon="1.1748703961761515"><ele>320.0</ele><time>2026-04-01T15:54:26Z</time></trkpt><trkpt lat="43.12367829856561" lon="1.1750021975842007"><ele>320.0</ele><time>2026-04-01T15:54:27Z</time></trkpt><trkpt lat="43.12357645836068" lon="1.175135516897718"><ele>320.0</ele><time>2026-04-01T15:54:28Z</time></trkpt><trkpt lat="43.12347699248992" lon="1.1752689415043795"><ele>320.0</ele><time>2026-04-01T15:54:29Z</time></trkpt><trkpt lat="43.123377706046284" lon="1.1754074182112364"><ele>320.0</ele><time>2026-04-01T15:54:30Z</time></trkpt><trkpt lat="43.1232795837299" lon="1.1755472369302011"><ele>320.0</ele><time>2026-04-01T15:54:31Z</time></trkpt><trkpt lat="43.123180564406724" lon="1.1756912874540224"><ele>320.0</ele><time>2026-04-01T15:54:32Z</time></trkpt><trkpt lat="43.12308304296933" lon="1.1758362236984554"><ele>320.0</ele><time>2026-04-01T15:54:33Z</time></trkpt><trkpt lat="43.122984114887785" lon="1.1759832504886263"><ele>321.75</ele><time>2026-04-01T15:54:34Z</time></trkpt><trkpt lat="43.122885671368245" lon="1.1761270942432318"><ele>323.5</ele><time>2026-04-01T15:54:35Z</time></trkpt><trkpt lat="43.12279045660669" lon="1.1762633293528717"><ele>325.25</ele><time>2026-04-01T15:54:36Z</time></trkpt><trkpt lat="43.1227146002326" lon="1.1764040874578052"><ele>327.0</ele><time>2026-04-01T15:54:37Z</time></trkpt><trkpt lat="43.12263142140902" lon="1.1765191841959044"><ele>327.0</ele><time>2026-04-01T15:54:38Z</time></trkpt><trkpt lat="43.12255922285608" lon="1.1766259248015893"><ele>327.0</ele><time>2026-04-01T15:54:39Z</time></trkpt><trkpt lat="43.12249178043514" lon="1.1767233070296643"><ele>327.0</ele><time>2026-04-01T15:54:40Z</time></trkpt><trkpt lat="43.12243029583323" lon="1.1768113878552855"><ele>327.0</ele><time>2026-04-01T15:54:41Z</time></trkpt><trkpt lat="43.122376967804904" lon="1.1768892619955686"><ele>327.0</ele><time>2026-04-01T15:54:42Z</time></trkpt><trkpt lat="43.12232945843284" lon="1.1769582216626873"><ele>327.0</ele><time>2026-04-01T15:54:43Z</time></trkpt><trkpt lat="43.12228585644691" lon="1.1770212899682784"><ele>327.0</ele><time>2026-04-01T15:54:44Z</time></trkpt><trkpt lat="43.12221426272265" lon="1.1771174173512984"><ele>327.0</ele><time>2026-04-01T15:54:46Z</time></trkpt><trkpt lat="43.122118963042276" lon="1.1772363727116373"><ele>327.0</ele><time>2026-04-01T15:54:48Z</time></trkpt><trkpt lat="43.122049430472565" lon="1.177305729955209"><ele>327.0</ele><time>2026-04-01T15:54:49Z</time></trkpt><trkpt lat="43.12193844366716" lon="1.1773797575063736"><ele>327.0</ele><time>2026-04-01T15:54:50Z</time></trkpt><trkpt lat="43.1218039970521" lon="1.1774904564854742"><ele>325.6666666666667</ele><time>2026-04-01T15:54:51Z</time></trkpt><trkpt lat="43.1216705836805" lon="1.1775986368027223"><ele>324.33333333333337</ele><time>2026-04-01T15:54:52Z</time></trkpt><trkpt lat="43.12151890188357" lon="1.1777191328368783"><ele>323.0</ele><time>2026-04-01T15:54:53Z</time></trkpt><trkpt lat="43.12135585633619" lon="1.1778483095722572"><ele>323.0</ele><time>2026-04-01T15:54:54Z</time></trkpt><trkpt lat="43.121218516016974" lon="1.17797976974901"><ele>323.0</ele><time>2026-04-01T15:54:55Z</time></trkpt><trkpt lat="43.12108130990085" lon="1.1780883522501768"><ele>323.0</ele><time>2026-04-01T15:54:56Z</time></trkpt><trkpt lat="43.120955055828006" lon="1.1781900940570278"><ele>322.75</ele><time>2026-04-01T15:54:57Z</time></trkpt><trkpt lat="43.12082596849481" lon="1.178294597403597"><ele>322.5</ele><time>2026-04-01T15:54:58Z</time></trkpt><trkpt lat="43.12069757258197" lon="1.1783934699179064"><ele>322.25</ele><time>2026-04-01T15:54:59Z</time></trkpt><trkpt lat="43.12057489728798" lon="1.178484718433545"><ele>322.0</ele><time>2026-04-01T15:55:00Z</time></trkpt><trkpt lat="43.12045525968566" lon="1.178577513885015"><ele>322.0</ele><time>2026-04-01T15:55:01Z</time></trkpt><trkpt lat="43.1203420254402" lon="1.1786682760676637"><ele>322.0</ele><time>2026-04-01T15:55:02Z</time></trkpt><trkpt lat="43.12023985352053" lon="1.178754973036441"><ele>322.0</ele><time>2026-04-01T15:55:03Z</time></trkpt><trkpt lat="43.120152399186026" lon="1.1788254374797427"><ele>322.0</ele><time>2026-04-01T15:55:04Z</time></trkpt><trkpt lat="43.120069361755554" lon="1.1788907632072845"><ele>322.0</ele><time>2026-04-01T15:55:05Z</time></trkpt><trkpt lat="43.11998144533598" lon="1.1789599362082392"><ele>322.25</ele><time>2026-04-01T15:55:06Z</time></trkpt><trkpt lat="43.11988750262963" lon="1.17904039615478"><ele>322.5</ele><time>2026-04-01T15:55:07Z</time></trkpt><trkpt lat="43.11977904283694" lon="1.1791058272065487"><ele>322.75</ele><time>2026-04-01T15:55:08Z</time></trkpt><trkpt lat="43.119676832184986" lon="1.1791897790548476"><ele>323.0</ele><time>2026-04-01T15:55:09Z</time></trkpt><trkpt lat="43.11957967166187" lon="1.1792695828641864"><ele>323.0</ele><time>2026-04-01T15:55:10Z</time></trkpt><trkpt lat="43.11948993556056" lon="1.1793432884909747"><ele>323.0</ele><time>2026-04-01T15:55:11Z</time></trkpt><trkpt lat="43.119400980436914" lon="1.1794295121840987"><ele>323.0</ele><time>2026-04-01T15:55:12Z</time></trkpt><trkpt lat="43.119327164375605" lon="1.1794939779187728"><ele>323.0</ele><time>2026-04-01T15:55:13Z</time></trkpt><trkpt lat="43.11925066091979" lon="1.1795569589739756"><ele>323.0</ele><time>2026-04-01T15:55:14Z</time></trkpt><trkpt lat="43.11915616566108" lon="1.179633479821613"><ele>324.4</ele><time>2026-04-01T15:55:15Z</time></trkpt><trkpt lat="43.1190491122818" lon="1.1797133913893603"><ele>325.79999999999995</ele><time>2026-04-01T15:55:16Z</time></trkpt><trkpt lat="43.118942239201786" lon="1.179781821937718"><ele>327.2</ele><time>2026-04-01T15:55:17Z</time></trkpt><trkpt lat="43.11885965492967" lon="1.1798484712035868"><ele>328.6</ele><time>2026-04-01T15:55:18Z</time></trkpt><trkpt lat="43.11879954942974" lon="1.1799068261516639"><ele>330.0</ele><time>2026-04-01T15:55:19Z</time></trkpt><trkpt lat="43.11869754181008" lon="1.1799495745066753"><ele>331.6</ele><time>2026-04-01T15:55:21Z</time></trkpt><trkpt lat="43.118651351553254" lon="1.1797271675025636"><ele>333.2</ele><time>2026-04-01T15:55:25Z</time></trkpt><trkpt lat="43.118655966280656" lon="1.179617855153715"><ele>334.79999999999995</ele><time>2026-04-01T15:55:26Z</time></trkpt><trkpt lat="43.11865494533859" lon="1.1794953199924767"><ele>336.4</ele><time>2026-04-01T15:55:27Z</time></trkpt><trkpt lat="43.11866376890548" lon="1.179351435956416"><ele>338.0</ele><time>2026-04-01T15:55:28Z</time></trkpt><trkpt lat="43.11868831144148" lon="1.17917046002291"><ele>339.75</ele><time>2026-04-01T15:55:29Z</time></trkpt><trkpt lat="43.11871568272165" lon="1.1789920026002982"><ele>341.5</ele><time>2026-04-01T15:55:30Z</time></trkpt><trkpt lat="43.1187474507477" lon="1.178794257544064"><ele>343.25</ele><time>2026-04-01T15:55:31Z</time></trkpt><trkpt lat="43.118788065975025" lon="1.1785924936945047"><ele>345.0</ele><time>2026-04-01T15:55:32Z</time></trkpt><trkpt lat="43.11883368963707" lon="1.1783842074352728"><ele>347.0</ele><time>2026-04-01T15:55:33Z</time></trkpt><trkpt lat="43.11889089382895" lon="1.1781737933147949"><ele>349.0</ele><time>2026-04-01T15:55:34Z</time></trkpt><trkpt lat="43.11894067175338" lon="1.1779628670704954"><ele>351.0</ele><time>2026-04-01T15:55:35Z</time></trkpt><trkpt lat="43.11900258820341" lon="1.1777568192548347"><ele>349.0</ele><time>2026-04-01T15:55:36Z</time></trkpt><trkpt lat="43.119080044901736" lon="1.1775578835744864"><ele>347.0</ele><time>2026-04-01T15:55:37Z</time></trkpt><trkpt lat="43.11916581104871" lon="1.1773618106795445"><ele>345.0</ele><time>2026-04-01T15:55:38Z</time></trkpt><trkpt lat="43.11924924495343" lon="1.1771612134853462"><ele>345.0</ele><time>2026-04-01T15:55:39Z</time></trkpt><trkpt lat="43.11933419562498" lon="1.176959948526192"><ele>345.0</ele><time>2026-04-01T15:55:40Z</time></trkpt><trkpt lat="43.11941745522802" lon="1.1767595048063864"><ele>345.0</ele><time>2026-04-01T15:55:41Z</time></trkpt><trkpt lat="43.11950470808106" lon="1.1765712265952195"><ele>347.0</ele><time>2026-04-01T15:55:42Z</time></trkpt><trkpt lat="43.119599144924976" lon="1.1764036477419797"><ele>349.0</ele><time>2026-04-01T15:55:43Z</time></trkpt><trkpt lat="43.119703620874745" lon="1.176252193715706"><ele>351.0</ele><time>2026-04-01T15:55:44Z</time></trkpt><trkpt lat="43.119805224012424" lon="1.176117034781815"><ele>353.0</ele><time>2026-04-01T15:55:45Z</time></trkpt><trkpt lat="43.1198765472389" lon="1.1759641948157002"><ele>353.75</ele><time>2026-04-01T15:55:46Z</time></trkpt><trkpt lat="43.11990646756466" lon="1.1757894674873564"><ele>354.5</ele><time>2026-04-01T15:55:47Z</time></trkpt><trkpt lat="43.119895694613625" lon="1.1756137350794371"><ele>355.25</ele><time>2026-04-01T15:55:48Z</time></trkpt><trkpt lat="43.11984609974459" lon="1.1754477817774116"><ele>356.0</ele><time>2026-04-01T15:55:49Z</time></trkpt><trkpt lat="43.119764166577504" lon="1.1753070086241773"><ele>356.0</ele><time>2026-04-01T15:55:50Z</time></trkpt><trkpt lat="43.11965555995491" lon="1.17518016281568"><ele>356.0</ele><time>2026-04-01T15:55:51Z</time></trkpt><trkpt lat="43.11952037807887" lon="1.175050230934398"><ele>356.0</ele><time>2026-04-01T15:55:52Z</time></trkpt><trkpt lat="43.11937259585721" lon="1.174915160537695"><ele>357.0</ele><time>2026-04-01T15:55:53Z</time></trkpt><trkpt lat="43.11925763931215" lon="1.174745291504158"><ele>358.0</ele><time>2026-04-01T15:55:54Z</time></trkpt><trkpt lat="43.11915074069115" lon="1.1745797272192555"><ele>359.0</ele><time>2026-04-01T15:55:55Z</time></trkpt><trkpt lat="43.119080153964106" lon="1.1743798872731326"><ele>361.0</ele><time>2026-04-01T15:55:56Z</time></trkpt><trkpt lat="43.11904418639466" lon="1.1741504722474818"><ele>363.0</ele><time>2026-04-01T15:55:57Z</time></trkpt><trkpt lat="43.119010985993185" lon="1.1739269293245111"><ele>365.0</ele><time>2026-04-01T15:55:58Z</time></trkpt><trkpt lat="43.118993842073515" lon="1.1737000204119519"><ele>365.33333333333337</ele><time>2026-04-01T15:55:59Z</time></trkpt><trkpt lat="43.11895437403522" lon="1.173476524351039"><ele>365.6666666666667</ele><time>2026-04-01T15:56:00Z</time></trkpt><trkpt lat="43.11889216150637" lon="1.1732547384692686"><ele>366.0</ele><time>2026-04-01T15:56:01Z</time></trkpt><trkpt lat="43.118819943522844" lon="1.173036947260229"><ele>367.3333333333333</ele><time>2026-04-01T15:56:02Z</time></trkpt><trkpt lat="43.11874838970133" lon="1.1728202752604835"><ele>368.66666666666663</ele><time>2026-04-01T15:56:03Z</time></trkpt><trkpt lat="43.118679651465555" lon="1.1726096341763632"><ele>370.0</ele><time>2026-04-01T15:56:04Z</time></trkpt><trkpt lat="43.11860738416258" lon="1.1724050816276204"><ele>369.3333333333333</ele><time>2026-04-01T15:56:05Z</time></trkpt><trkpt lat="43.11852019229401" lon="1.1722170316794718"><ele>368.6666666666667</ele><time>2026-04-01T15:56:06Z</time></trkpt><trkpt lat="43.11841652774115" lon="1.1720477473695043"><ele>368.0</ele><time>2026-04-01T15:56:07Z</time></trkpt><trkpt lat="43.11831065482558" lon="1.171887553699299"><ele>369.0</ele><time>2026-04-01T15:56:08Z</time></trkpt><trkpt lat="43.11821851359677" lon="1.1717178457880915"><ele>370.0</ele><time>2026-04-01T15:56:09Z</time></trkpt><trkpt lat="43.118143581252454" lon="1.1715185330984534"><ele>371.0</ele><time>2026-04-01T15:56:10Z</time></trkpt><trkpt lat="43.11812336728328" lon="1.1712922347071917"><ele>372.6666666666667</ele><time>2026-04-01T15:56:11Z</time></trkpt><trkpt lat="43.118094886102455" lon="1.1710654759020627"><ele>374.3333333333333</ele><time>2026-04-01T15:56:12Z</time></trkpt><trkpt lat="43.1180511775255" lon="1.1708351243166002"><ele>376.0</ele><time>2026-04-01T15:56:13Z</time></trkpt><trkpt lat="43.118010853416045" lon="1.1706040253102916"><ele>379.3333333333333</ele><time>2026-04-01T15:56:14Z</time></trkpt><trkpt lat="43.11796240590961" lon="1.170372913885484"><ele>382.66666666666663</ele><time>2026-04-01T15:56:15Z</time></trkpt><trkpt lat="43.11792147592072" lon="1.1701399772916696"><ele>386.0</ele><time>2026-04-01T15:56:16Z</time></trkpt><trkpt lat="43.117901278479295" lon="1.1699029046994878"><ele>387.0</ele><time>2026-04-01T15:56:17Z</time></trkpt><trkpt lat="43.11794807384675" lon="1.1696690146150606"><ele>388.0</ele><time>2026-04-01T15:56:18Z</time></trkpt><trkpt lat="43.11796868945451" lon="1.1694260553630371"><ele>389.0</ele><time>2026-04-01T15:56:19Z</time></trkpt><trkpt lat="43.11800154253594" lon="1.1691878735862538"><ele>388.0</ele><time>2026-04-01T15:56:20Z</time></trkpt><trkpt lat="43.11799848633338" lon="1.168938012906376"><ele>387.0</ele><time>2026-04-01T15:56:21Z</time></trkpt><trkpt lat="43.117990635465766" lon="1.1686879212483647"><ele>386.0</ele><time>2026-04-01T15:56:22Z</time></trkpt><trkpt lat="43.11799170832537" lon="1.1684336627556804"><ele>386.0</ele><time>2026-04-01T15:56:23Z</time></trkpt><trkpt lat="43.117992348028125" lon="1.1681962552505778"><ele>386.0</ele><time>2026-04-01T15:56:24Z</time></trkpt><trkpt lat="43.117993193015" lon="1.1679891881218547"><ele>386.0</ele><time>2026-04-01T15:56:25Z</time></trkpt><trkpt lat="43.11800143878125" lon="1.1677866547129698"><ele>385.25</ele><time>2026-04-01T15:56:26Z</time></trkpt><trkpt lat="43.11802697149691" lon="1.1676006799802412"><ele>384.5</ele><time>2026-04-01T15:56:27Z</time></trkpt><trkpt lat="43.11811058391201" lon="1.167443757332994"><ele>383.75</ele><time>2026-04-01T15:56:28Z</time></trkpt><trkpt lat="43.11817999222423" lon="1.1672358662070483"><ele>383.0</ele><time>2026-04-01T15:56:29Z</time></trkpt><trkpt lat="43.118269017684014" lon="1.167048867649209"><ele>385.0</ele><time>2026-04-01T15:56:30Z</time></trkpt><trkpt lat="43.11833911273609" lon="1.1668751612306034"><ele>387.0</ele><time>2026-04-01T15:56:31Z</time></trkpt><trkpt lat="43.11838278417363" lon="1.1667113675020657"><ele>389.0</ele><time>2026-04-01T15:56:32Z</time></trkpt><trkpt lat="43.11837529033437" lon="1.1665514551896794"><ele>391.0</ele><time>2026-04-01T15:56:33Z</time></trkpt><trkpt lat="43.11832057975383" lon="1.1663993246048936"><ele>389.6666666666667</ele><time>2026-04-01T15:56:34Z</time></trkpt><trkpt lat="43.11823119289822" lon="1.1662382683605208"><ele>388.33333333333337</ele><time>2026-04-01T15:56:35Z</time></trkpt><trkpt lat="43.11812637488886" lon="1.1660573963779253"><ele>387.0</ele><time>2026-04-01T15:56:36Z</time></trkpt><trkpt lat="43.118022808829636" lon="1.165844258623542"><ele>389.0</ele><time>2026-04-01T15:56:37Z</time></trkpt><trkpt lat="43.117924567393786" lon="1.165619205636899"><ele>391.0</ele><time>2026-04-01T15:56:38Z</time></trkpt><trkpt lat="43.117823122981946" lon="1.1653979444845919"><ele>393.0</ele><time>2026-04-01T15:56:39Z</time></trkpt><trkpt lat="43.1177198330967" lon="1.1651894847321251"><ele>393.0</ele><time>2026-04-01T15:56:40Z</time></trkpt><trkpt lat="43.11762811235135" lon="1.164999640407406"><ele>393.0</ele><time>2026-04-01T15:56:41Z</time></trkpt><trkpt lat="43.1175531912941" lon="1.164826244694683"><ele>393.0</ele><time>2026-04-01T15:56:42Z</time></trkpt><trkpt lat="43.11750257050402" lon="1.1646376543800323"><ele>393.75</ele><time>2026-04-01T15:56:43Z</time></trkpt><trkpt lat="43.11748538547164" lon="1.164432843652728"><ele>394.5</ele><time>2026-04-01T15:56:44Z</time></trkpt><trkpt lat="43.1175321230117" lon="1.164241009519081"><ele>395.25</ele><time>2026-04-01T15:56:45Z</time></trkpt><trkpt lat="43.117601856588834" lon="1.1640695442466678"><ele>396.0</ele><time>2026-04-01T15:56:46Z</time></trkpt><trkpt lat="43.11768608288794" lon="1.163886585460771"><ele>396.5</ele><time>2026-04-01T15:56:47Z</time></trkpt><trkpt lat="43.11774051633782" lon="1.1636966405493425"><ele>397.0</ele><time>2026-04-01T15:56:48Z</time></trkpt><trkpt lat="43.117760877919046" lon="1.1635040975752091"><ele>397.5</ele><time>2026-04-01T15:56:49Z</time></trkpt><trkpt lat="43.11772385022662" lon="1.1633090866094415"><ele>398.0</ele><time>2026-04-01T15:56:50Z</time></trkpt><trkpt lat="43.11764537441583" lon="1.163144737422208"><ele>398.3333333333333</ele><time>2026-04-01T15:56:51Z</time></trkpt><trkpt lat="43.11753341002916" lon="1.16301413736531"><ele>398.66666666666663</ele><time>2026-04-01T15:56:52Z</time></trkpt><trkpt lat="43.11739454244936" lon="1.1628895419547585"><ele>399.0</ele><time>2026-04-01T15:56:53Z</time></trkpt><trkpt lat="43.11728508621556" lon="1.1627453060095183"><ele>396.75</ele><time>2026-04-01T15:56:54Z</time></trkpt><trkpt lat="43.11723539511893" lon="1.1625744776363671"><ele>394.5</ele><time>2026-04-01T15:56:55Z</time></trkpt><trkpt lat="43.11719546552906" lon="1.162401706187954"><ele>392.25</ele><time>2026-04-01T15:56:56Z</time></trkpt><trkpt lat="43.11717461126074" lon="1.1621937633484292"><ele>390.0</ele><time>2026-04-01T15:56:57Z</time></trkpt><trkpt lat="43.11716450960524" lon="1.1619659008580225"><ele>390.0</ele><time>2026-04-01T15:56:58Z</time></trkpt><trkpt lat="43.11718415161065" lon="1.1617714210042915"><ele>390.0</ele><time>2026-04-01T15:56:59Z</time></trkpt><trkpt lat="43.117246424715425" lon="1.161614435707291"><ele>390.0</ele><time>2026-04-01T15:57:00Z</time></trkpt><trkpt lat="43.117327118354105" lon="1.1614613672182426"><ele>390.0</ele><time>2026-04-01T15:57:01Z</time></trkpt><trkpt lat="43.11746165863065" lon="1.1613509598385572"><ele>392.75</ele><time>2026-04-01T15:57:02Z</time></trkpt><trkpt lat="43.1175686907559" lon="1.161218955766011"><ele>395.5</ele><time>2026-04-01T15:57:03Z</time></trkpt><trkpt lat="43.117661905809605" lon="1.161114496374184"><ele>398.25</ele><time>2026-04-01T15:57:04Z</time></trkpt><trkpt lat="43.117712358109024" lon="1.160987437846589"><ele>401.0</ele><time>2026-04-01T15:57:05Z</time></trkpt><trkpt lat="43.11771503624051" lon="1.160849885210286"><ele>401.0</ele><time>2026-04-01T15:57:06Z</time></trkpt><trkpt lat="43.11767652231718" lon="1.1607292430830813"><ele>401.0</ele><time>2026-04-01T15:57:07Z</time></trkpt><trkpt lat="43.117599831936054" lon="1.1606343622985034"><ele>401.0</ele><time>2026-04-01T15:57:08Z</time></trkpt><trkpt lat="43.11749855231644" lon="1.160584838850231"><ele>401.0</ele><time>2026-04-01T15:57:09Z</time></trkpt><trkpt lat="43.11737374624195" lon="1.1605614004883393"><ele>401.0</ele><time>2026-04-01T15:57:10Z</time></trkpt><trkpt lat="43.117234736485344" lon="1.1605316332697695"><ele>402.0</ele><time>2026-04-01T15:57:11Z</time></trkpt><trkpt lat="43.11709940288145" lon="1.16046003239012"><ele>403.0</ele><time>2026-04-01T15:57:12Z</time></trkpt><trkpt lat="43.11698415129611" lon="1.1603658212252574"><ele>404.0</ele><time>2026-04-01T15:57:13Z</time></trkpt><trkpt lat="43.1169179636458" lon="1.1602448078345988"><ele>405.0</ele><time>2026-04-01T15:57:14Z</time></trkpt><trkpt lat="43.11687982895091" lon="1.1601051417752943"><ele>405.0</ele><time>2026-04-01T15:57:15Z</time></trkpt><trkpt lat="43.11687703846387" lon="1.1599251581503285"><ele>405.0</ele><time>2026-04-01T15:57:16Z</time></trkpt><trkpt lat="43.116888732977216" lon="1.159725418146863"><ele>405.0</ele><time>2026-04-01T15:57:17Z</time></trkpt><trkpt lat="43.11687937351472" lon="1.1595277312663166"><ele>405.0</ele><time>2026-04-01T15:57:18Z</time></trkpt><trkpt lat="43.1168627601872" lon="1.1593250817954033"><ele>406.0</ele><time>2026-04-01T15:57:19Z</time></trkpt><trkpt lat="43.11681131614754" lon="1.1591223119270642"><ele>407.0</ele><time>2026-04-01T15:57:20Z</time></trkpt><trkpt lat="43.11671653932392" lon="1.158925334112403"><ele>408.0</ele><time>2026-04-01T15:57:21Z</time></trkpt><trkpt lat="43.11660782355148" lon="1.158753426376711"><ele>405.33333333333337</ele><time>2026-04-01T15:57:22Z</time></trkpt><trkpt lat="43.11651089756117" lon="1.1585719002119286"><ele>402.6666666666667</ele><time>2026-04-01T15:57:23Z</time></trkpt><trkpt lat="43.1164697770262" lon="1.1583669097812903"><ele>400.0</ele><time>2026-04-01T15:57:24Z</time></trkpt><trkpt lat="43.116464939647024" lon="1.1581362326199574"><ele>400.0</ele><time>2026-04-01T15:57:25Z</time></trkpt><trkpt lat="43.116474083380915" lon="1.1578869291452336"><ele>400.0</ele><time>2026-04-01T15:57:26Z</time></trkpt><trkpt lat="43.11647561451248" lon="1.1576217310380545"><ele>400.0</ele><time>2026-04-01T15:57:27Z</time></trkpt><trkpt lat="43.11646805119187" lon="1.1573232800421216"><ele>399.0</ele><time>2026-04-01T15:57:28Z</time></trkpt><trkpt lat="43.11646488084122" lon="1.157014872037036"><ele>398.0</ele><time>2026-04-01T15:57:29Z</time></trkpt><trkpt lat="43.11646138310378" lon="1.1567401073568493"><ele>397.0</ele><time>2026-04-01T15:57:30Z</time></trkpt><trkpt lat="43.116456617052314" lon="1.156501118967867"><ele>396.6666666666667</ele><time>2026-04-01T15:57:31Z</time></trkpt><trkpt lat="43.11645005902229" lon="1.1562605371252335"><ele>396.33333333333337</ele><time>2026-04-01T15:57:32Z</time></trkpt><trkpt lat="43.1164484622624" lon="1.156017752431445"><ele>396.0</ele><time>2026-04-01T15:57:33Z</time></trkpt><trkpt lat="43.116471519869144" lon="1.15576327468773"><ele>398.33333333333337</ele><time>2026-04-01T15:57:34Z</time></trkpt><trkpt lat="43.1165216247231" lon="1.155491841180753"><ele>400.6666666666667</ele><time>2026-04-01T15:57:35Z</time></trkpt><trkpt lat="43.11658428314943" lon="1.155221691141724"><ele>403.0</ele><time>2026-04-01T15:57:36Z</time></trkpt><trkpt lat="43.11663344823557" lon="1.1549559163240501"><ele>406.6666666666667</ele><time>2026-04-01T15:57:37Z</time></trkpt><trkpt lat="43.11667562779495" lon="1.154703090087566"><ele>410.33333333333337</ele><time>2026-04-01T15:57:38Z</time></trkpt><trkpt lat="43.11669515070813" lon="1.1544706397768845"><ele>414.0</ele><time>2026-04-01T15:57:39Z</time></trkpt><trkpt lat="43.11667844927049" lon="1.1542444670210383"><ele>415.33333333333337</ele><time>2026-04-01T15:57:40Z</time></trkpt><trkpt lat="43.11662238580154" lon="1.15402676254405"><ele>416.6666666666667</ele><time>2026-04-01T15:57:41Z</time></trkpt><trkpt lat="43.116535454298116" lon="1.1537978428718472"><ele>418.0</ele><time>2026-04-01T15:57:42Z</time></trkpt><trkpt lat="43.116447747306324" lon="1.1535642138615068"><ele>415.33333333333337</ele><time>2026-04-01T15:57:43Z</time></trkpt><trkpt lat="43.11635605480967" lon="1.1533189321459558"><ele>412.66666666666663</ele><time>2026-04-01T15:57:44Z</time></trkpt><trkpt lat="43.11626593392334" lon="1.1530800801272518"><ele>410.0</ele><time>2026-04-01T15:57:45Z</time></trkpt><trkpt lat="43.116187815881744" lon="1.152853627226086"><ele>410.0</ele><time>2026-04-01T15:57:46Z</time></trkpt><trkpt lat="43.11612275548716" lon="1.1526286618399693"><ele>410.0</ele><time>2026-04-01T15:57:47Z</time></trkpt><trkpt lat="43.11609382937134" lon="1.1524099114814623"><ele>410.0</ele><time>2026-04-01T15:57:48Z</time></trkpt><trkpt lat="43.11609487252899" lon="1.1521542578158368"><ele>410.0</ele><time>2026-04-01T15:57:49Z</time></trkpt><trkpt lat="43.116104370196545" lon="1.1518663052630957"><ele>410.0</ele><time>2026-04-01T15:57:50Z</time></trkpt><trkpt lat="43.11611158016389" lon="1.1515586598738166"><ele>410.0</ele><time>2026-04-01T15:57:51Z</time></trkpt><trkpt lat="43.116121437390994" lon="1.1512362061493548"><ele>411.0</ele><time>2026-04-01T15:57:52Z</time></trkpt><trkpt lat="43.11613441103484" lon="1.1508948841046518"><ele>412.0</ele><time>2026-04-01T15:57:53Z</time></trkpt><trkpt lat="43.116156337656214" lon="1.150580950818867"><ele>413.5</ele><time>2026-04-01T15:57:54Z</time></trkpt><trkpt lat="43.11618041750008" lon="1.1502705891148632"><ele>415.0</ele><time>2026-04-01T15:57:55Z</time></trkpt><trkpt lat="43.116202465583974" lon="1.1499445420096215"><ele>414.6666666666667</ele><time>2026-04-01T15:57:56Z</time></trkpt><trkpt lat="43.11624053631666" lon="1.1496308701503806"><ele>414.33333333333337</ele><time>2026-04-01T15:57:57Z</time></trkpt><trkpt lat="43.11630285198285" lon="1.149351576354535"><ele>414.0</ele><time>2026-04-01T15:57:58Z</time></trkpt><trkpt lat="43.11635361958753" lon="1.1490809670549658"><ele>414.0</ele><time>2026-04-01T15:57:59Z</time></trkpt><trkpt lat="43.11636790529974" lon="1.1487914208988923"><ele>414.0</ele><time>2026-04-01T15:58:00Z</time></trkpt><trkpt lat="43.116362190863875" lon="1.1484838601652836"><ele>414.0</ele><time>2026-04-01T15:58:01Z</time></trkpt><trkpt lat="43.11634538577287" lon="1.1481771203120927"><ele>414.0</ele><time>2026-04-01T15:58:02Z</time></trkpt><trkpt lat="43.11632432701075" lon="1.1479019305933513"><ele>414.0</ele><time>2026-04-01T15:58:03Z</time></trkpt><trkpt lat="43.11632555477333" lon="1.1476262641420847"><ele>414.0</ele><time>2026-04-01T15:58:04Z</time></trkpt><trkpt lat="43.116383846604116" lon="1.1473704341862876"><ele>414.66666666666663</ele><time>2026-04-01T15:58:05Z</time></trkpt><trkpt lat="43.11642536523424" lon="1.147126002407736"><ele>415.3333333333333</ele><time>2026-04-01T15:58:06Z</time></trkpt><trkpt lat="43.116453566631904" lon="1.146899245948957"><ele>416.0</ele><time>2026-04-01T15:58:07Z</time></trkpt><trkpt lat="43.11642711162874" lon="1.146669213603968"><ele>418.0</ele><time>2026-04-01T15:58:08Z</time></trkpt><trkpt lat="43.116353831962535" lon="1.1464384525997995"><ele>420.0</ele><time>2026-04-01T15:58:09Z</time></trkpt><trkpt lat="43.11624305233893" lon="1.146209324869017"><ele>422.0</ele><time>2026-04-01T15:58:10Z</time></trkpt><trkpt lat="43.11611557306457" lon="1.1459806484772268"><ele>422.0</ele><time>2026-04-01T15:58:11Z</time></trkpt><trkpt lat="43.116031336289645" lon="1.145735650005802"><ele>422.0</ele><time>2026-04-01T15:58:12Z</time></trkpt><trkpt lat="43.1159893817887" lon="1.14550591028125"><ele>422.0</ele><time>2026-04-01T15:58:13Z</time></trkpt><trkpt lat="43.11599152256885" lon="1.145276202912921"><ele>423.66666666666663</ele><time>2026-04-01T15:58:14Z</time></trkpt><trkpt lat="43.11602026639391" lon="1.145028004617972"><ele>425.33333333333337</ele><time>2026-04-01T15:58:15Z</time></trkpt><trkpt lat="43.116042583943056" lon="1.1447707861185565"><ele>427.0</ele><time>2026-04-01T15:58:16Z</time></trkpt><trkpt lat="43.11606321412143" lon="1.1445135531242001"><ele>428.33333333333337</ele><time>2026-04-01T15:58:17Z</time></trkpt><trkpt lat="43.11604126343793" lon="1.14425778971491"><ele>429.66666666666663</ele><time>2026-04-01T15:58:18Z</time></trkpt><trkpt lat="43.115998721947236" lon="1.1440030083043697"><ele>431.0</ele><time>2026-04-01T15:58:19Z</time></trkpt><trkpt lat="43.115930790806175" lon="1.1437295314092801"><ele>432.0</ele><time>2026-04-01T15:58:20Z</time></trkpt><trkpt lat="43.115832901080424" lon="1.1434476179577413"><ele>433.0</ele><time>2026-04-01T15:58:21Z</time></trkpt><trkpt lat="43.11571134328054" lon="1.143188203147166"><ele>430.5</ele><time>2026-04-01T15:58:22Z</time></trkpt><trkpt lat="43.11556705331405" lon="1.1429599462850093"><ele>428.0</ele><time>2026-04-01T15:58:23Z</time></trkpt><trkpt lat="43.115400421472465" lon="1.1427429188190505"><ele>428.0</ele><time>2026-04-01T15:58:24Z</time></trkpt><trkpt lat="43.11523009799286" lon="1.1425474988318152"><ele>428.0</ele><time>2026-04-01T15:58:25Z</time></trkpt><trkpt lat="43.115061328791796" lon="1.142360214059339"><ele>428.0</ele><time>2026-04-01T15:58:26Z</time></trkpt><trkpt lat="43.114891810379014" lon="1.1421802035702164"><ele>428.3333333333333</ele><time>2026-04-01T15:58:27Z</time></trkpt><trkpt lat="43.11471520581846" lon="1.141985267834081"><ele>428.66666666666663</ele><time>2026-04-01T15:58:28Z</time></trkpt><trkpt lat="43.1145588039208" lon="1.141777905217098"><ele>429.0</ele><time>2026-04-01T15:58:29Z</time></trkpt><trkpt lat="43.11441802731252" lon="1.1415648896359478"><ele>428.66666666666663</ele><time>2026-04-01T15:58:30Z</time></trkpt><trkpt lat="43.11429684975675" lon="1.1413478235078978"><ele>428.3333333333333</ele><time>2026-04-01T15:58:31Z</time></trkpt><trkpt lat="43.11418826341102" lon="1.1411200364426606"><ele>428.0</ele><time>2026-04-01T15:58:32Z</time></trkpt><trkpt lat="43.114089671935886" lon="1.1408543795115895"><ele>425.5</ele><time>2026-04-01T15:58:33Z</time></trkpt><trkpt lat="43.11402424670882" lon="1.1405471992099263"><ele>423.0</ele><time>2026-04-01T15:58:34Z</time></trkpt><trkpt lat="43.11396352594506" lon="1.1402187166863775"><ele>422.0</ele><time>2026-04-01T15:58:35Z</time></trkpt><trkpt lat="43.113917486878876" lon="1.139872393747844"><ele>421.0</ele><time>2026-04-01T15:58:36Z</time></trkpt><trkpt lat="43.11386582007435" lon="1.1395184166843786"><ele>421.0</ele><time>2026-04-01T15:58:37Z</time></trkpt><trkpt lat="43.1138222485439" lon="1.1391571765557702"><ele>421.0</ele><time>2026-04-01T15:58:38Z</time></trkpt><trkpt lat="43.11377079456358" lon="1.1388373530273166"><ele>420.0</ele><time>2026-04-01T15:58:39Z</time></trkpt><trkpt lat="43.113705268808516" lon="1.1385349997357375"><ele>419.0</ele><time>2026-04-01T15:58:40Z</time></trkpt><trkpt lat="43.1136204139595" lon="1.1382341043541917"><ele>418.0</ele><time>2026-04-01T15:58:41Z</time></trkpt><trkpt lat="43.11352609982392" lon="1.1379199819753902"><ele>417.0</ele><time>2026-04-01T15:58:42Z</time></trkpt><trkpt lat="43.11342799767977" lon="1.1375958829294424"><ele>416.0</ele><time>2026-04-01T15:58:43Z</time></trkpt><trkpt lat="43.113337022926395" lon="1.1372690757254746"><ele>415.0</ele><time>2026-04-01T15:58:44Z</time></trkpt><trkpt lat="43.113247689700344" lon="1.1369419308376458"><ele>416.0</ele><time>2026-04-01T15:58:45Z</time></trkpt><trkpt lat="43.11315539312596" lon="1.1366126231129627"><ele>417.0</ele><time>2026-04-01T15:58:46Z</time></trkpt><trkpt lat="43.11306357553717" lon="1.1362889962057445"><ele>417.0</ele><time>2026-04-01T15:58:47Z</time></trkpt><trkpt lat="43.11296981041021" lon="1.1359646256742177"><ele>417.0</ele><time>2026-04-01T15:58:48Z</time></trkpt><trkpt lat="43.11287859391881" lon="1.1356506398609396"><ele>416.0</ele><time>2026-04-01T15:58:49Z</time></trkpt><trkpt lat="43.11278847335223" lon="1.1353344825674603"><ele>415.0</ele><time>2026-04-01T15:58:50Z</time></trkpt><trkpt lat="43.112705967915865" lon="1.1350215610380052"><ele>414.5</ele><time>2026-04-01T15:58:51Z</time></trkpt><trkpt lat="43.11262732822988" lon="1.134729702570206"><ele>414.0</ele><time>2026-04-01T15:58:52Z</time></trkpt><trkpt lat="43.112547413288695" lon="1.1344419718365633"><ele>414.0</ele><time>2026-04-01T15:58:53Z</time></trkpt><trkpt lat="43.11247258278879" lon="1.1341715592512507"><ele>414.0</ele><time>2026-04-01T15:58:54Z</time></trkpt><trkpt lat="43.11240601845519" lon="1.1339331910116217"><ele>414.0</ele><time>2026-04-01T15:58:55Z</time></trkpt><trkpt lat="43.112338879287904" lon="1.133724787066736"><ele>413.66666666666663</ele><time>2026-04-01T15:58:56Z</time></trkpt><trkpt lat="43.112248403794986" lon="1.1335361294396853"><ele>413.3333333333333</ele><time>2026-04-01T15:58:57Z</time></trkpt><trkpt lat="43.112124977670334" lon="1.1333630951623954"><ele>413.0</ele><time>2026-04-01T15:58:58Z</time></trkpt><trkpt lat="43.111976429062835" lon="1.1331988684501069"><ele>413.0</ele><time>2026-04-01T15:58:59Z</time></trkpt><trkpt lat="43.11182177341542" lon="1.1330230020429808"><ele>413.0</ele><time>2026-04-01T15:59:00Z</time></trkpt><trkpt lat="43.111672870882195" lon="1.1328388498425137"><ele>413.0</ele><time>2026-04-01T15:59:01Z</time></trkpt><trkpt lat="43.111525731307275" lon="1.132653528120402"><ele>412.3333333333333</ele><time>2026-04-01T15:59:02Z</time></trkpt><trkpt lat="43.111379969724815" lon="1.1324677821751574"><ele>411.66666666666663</ele><time>2026-04-01T15:59:03Z</time></trkpt><trkpt lat="43.11123482330868" lon="1.1322902829879207"><ele>411.0</ele><time>2026-04-01T15:59:04Z</time></trkpt><trkpt lat="43.11110220669737" lon="1.1321261732738974"><ele>411.0</ele><time>2026-04-01T15:59:05Z</time></trkpt><trkpt lat="43.1109697404384" lon="1.131953003708395"><ele>411.0</ele><time>2026-04-01T15:59:06Z</time></trkpt><trkpt lat="43.11085414703327" lon="1.1317645592350865"><ele>411.0</ele><time>2026-04-01T15:59:07Z</time></trkpt><trkpt lat="43.11075723966596" lon="1.131560557339476"><ele>410.33333333333337</ele><time>2026-04-01T15:59:08Z</time></trkpt><trkpt lat="43.110673654754684" lon="1.131338708950028"><ele>409.6666666666667</ele><time>2026-04-01T15:59:09Z</time></trkpt><trkpt lat="43.11059864938189" lon="1.1310948028694927"><ele>409.0</ele><time>2026-04-01T15:59:10Z</time></trkpt><trkpt lat="43.11055196436952" lon="1.1308559958084494"><ele>409.0</ele><time>2026-04-01T15:59:11Z</time></trkpt><trkpt lat="43.110524546408136" lon="1.130617350692244"><ele>409.0</ele><time>2026-04-01T15:59:12Z</time></trkpt><trkpt lat="43.11051483387012" lon="1.130374253083653"><ele>409.0</ele><time>2026-04-01T15:59:13Z</time></trkpt><trkpt lat="43.11052239415828" lon="1.1301166689969646"><ele>408.6666666666667</ele><time>2026-04-01T15:59:14Z</time></trkpt><trkpt lat="43.110533698481966" lon="1.1298638308050852"><ele>408.33333333333337</ele><time>2026-04-01T15:59:15Z</time></trkpt><trkpt lat="43.110530250084686" lon="1.129617844319539"><ele>408.0</ele><time>2026-04-01T15:59:16Z</time></trkpt><trkpt lat="43.110508652274675" lon="1.1293892599970798"><ele>408.0</ele><time>2026-04-01T15:59:17Z</time></trkpt><trkpt lat="43.110464140402506" lon="1.1291789533615564"><ele>408.0</ele><time>2026-04-01T15:59:18Z</time></trkpt><trkpt lat="43.11039173211824" lon="1.1289849310583526"><ele>408.0</ele><time>2026-04-01T15:59:19Z</time></trkpt><trkpt lat="43.11028905733162" lon="1.1288086793267087"><ele>408.66666666666663</ele><time>2026-04-01T15:59:20Z</time></trkpt><trkpt lat="43.11019241874216" lon="1.1286342125488276"><ele>409.3333333333333</ele><time>2026-04-01T15:59:21Z</time></trkpt><trkpt lat="43.110098930707046" lon="1.1284572184682227"><ele>410.0</ele><time>2026-04-01T15:59:22Z</time></trkpt><trkpt lat="43.11002081166668" lon="1.1282752969899454"><ele>409.0</ele><time>2026-04-01T15:59:23Z</time></trkpt><trkpt lat="43.10997037188535" lon="1.1280964791729924"><ele>408.0</ele><time>2026-04-01T15:59:24Z</time></trkpt><trkpt lat="43.109945984379046" lon="1.1279065398629213"><ele>407.0</ele><time>2026-04-01T15:59:25Z</time></trkpt><trkpt lat="43.109955191865566" lon="1.1277136350769261"><ele>406.0</ele><time>2026-04-01T15:59:26Z</time></trkpt><trkpt lat="43.10997311657316" lon="1.1275560046381934"><ele>406.0</ele><time>2026-04-01T15:59:27Z</time></trkpt><trkpt lat="43.11000468190145" lon="1.1274199720130882"><ele>406.0</ele><time>2026-04-01T15:59:28Z</time></trkpt><trkpt lat="43.11001974638691" lon="1.127240344620602"><ele>406.0</ele><time>2026-04-01T15:59:29Z</time></trkpt><trkpt lat="43.10999825169773" lon="1.1270316818911"><ele>406.0</ele><time>2026-04-01T15:59:30Z</time></trkpt><trkpt lat="43.11000083304857" lon="1.1268773371411651"><ele>405.4</ele><time>2026-04-01T15:59:31Z</time></trkpt><trkpt lat="43.10999880776515" lon="1.1267519304124618"><ele>404.8</ele><time>2026-04-01T15:59:32Z</time></trkpt><trkpt lat="43.109960095216216" lon="1.1266351222251356"><ele>404.2</ele><time>2026-04-01T15:59:33Z</time></trkpt><trkpt lat="43.1098819269057" lon="1.1265552000035406"><ele>403.59999999999997</ele><time>2026-04-01T15:59:34Z</time></trkpt><trkpt lat="43.10976934931044" lon="1.1265176955246075"><ele>403.0</ele><time>2026-04-01T15:59:35Z</time></trkpt><trkpt lat="43.10962928041516" lon="1.1264823090626201"><ele>402.83333333333337</ele><time>2026-04-01T15:59:36Z</time></trkpt><trkpt lat="43.10951830462683" lon="1.1264480032988193"><ele>402.6666666666667</ele><time>2026-04-01T15:59:37Z</time></trkpt><trkpt lat="43.10945407944788" lon="1.1263947390302753"><ele>402.5</ele><time>2026-04-01T15:59:38Z</time></trkpt><trkpt lat="43.109443404429605" lon="1.1262791763827866"><ele>402.33333333333337</ele><time>2026-04-01T15:59:39Z</time></trkpt><trkpt lat="43.10949058806962" lon="1.1261969064649904"><ele>402.1666666666667</ele><time>2026-04-01T15:59:40Z</time></trkpt><trkpt lat="43.10952053351504" lon="1.1260844305431443"><ele>402.0</ele><time>2026-04-01T15:59:41Z</time></trkpt><trkpt lat="43.1095601974213" lon="1.1259071338980278"><ele>402.0</ele><time>2026-04-01T15:59:42Z</time></trkpt><trkpt lat="43.109604175505886" lon="1.1257082942729775"><ele>402.0</ele><time>2026-04-01T15:59:43Z</time></trkpt><trkpt lat="43.1096442061653" lon="1.1255404992281668"><ele>402.0</ele><time>2026-04-01T15:59:44Z</time></trkpt><trkpt lat="43.109652540584044" lon="1.1254185978367353"><ele>402.0</ele><time>2026-04-01T15:59:45Z</time></trkpt><trkpt lat="43.10965324542461" lon="1.1253220106702424"><ele>402.0</ele><time>2026-04-01T15:59:46Z</time></trkpt><trkpt lat="43.109559118010104" lon="1.125221413326735"><ele>402.0</ele><time>2026-04-01T15:59:48Z</time></trkpt><trkpt lat="43.10949000330498" lon="1.1252267502379527"><ele>402.0</ele><time>2026-04-01T15:59:49Z</time></trkpt><trkpt lat="43.109397693304786" lon="1.1252398081599178"><ele>402.0</ele><time>2026-04-01T15:59:50Z</time></trkpt><trkpt lat="43.10928988801611" lon="1.1252068086349534"><ele>402.0</ele><time>2026-04-01T15:59:51Z</time></trkpt><trkpt lat="43.1091717966371" lon="1.1251766973179638"><ele>402.0</ele><time>2026-04-01T15:59:52Z</time></trkpt><trkpt lat="43.10905286263562" lon="1.125109969198006"><ele>401.75</ele><time>2026-04-01T15:59:53Z</time></trkpt><trkpt lat="43.10894188403481" lon="1.1250053843132732"><ele>401.5</ele><time>2026-04-01T15:59:54Z</time></trkpt><trkpt lat="43.10884726052164" lon="1.1248852003496537"><ele>401.25</ele><time>2026-04-01T15:59:55Z</time></trkpt><trkpt lat="43.108770534065314" lon="1.1247460932556528"><ele>401.0</ele><time>2026-04-01T15:59:56Z</time></trkpt><trkpt lat="43.1086959281372" lon="1.124619306420507"><ele>400.99999999999994</ele><time>2026-04-01T15:59:57Z</time></trkpt><trkpt lat="43.108626731820706" lon="1.1245155341630404"><ele>401.0</ele><time>2026-04-01T15:59:58Z</time></trkpt><trkpt lat="43.108549137323166" lon="1.1244632937922079"><ele>401.0</ele><time>2026-04-01T15:59:59Z</time></trkpt><trkpt lat="43.10848408202397" lon="1.1244083614722518"><ele>401.0</ele><time>2026-04-01T16:00:00Z</time></trkpt><trkpt lat="43.108406891926286" lon="1.1243845269583803"><ele>400.99999999999994</ele><time>2026-04-01T16:00:01Z</time></trkpt><trkpt lat="43.10833104092397" lon="1.1243759180500084"><ele>401.0</ele><time>2026-04-01T16:00:02Z</time></trkpt><trkpt lat="43.10825767156019" lon="1.12436346433663"><ele>399.0</ele><time>2026-04-01T16:00:03Z</time></trkpt><trkpt lat="43.10817526835943" lon="1.1243362219309962"><ele>397.0</ele><time>2026-04-01T16:00:04Z</time></trkpt><trkpt lat="43.108087758853024" lon="1.1242932851028598"><ele>395.0</ele><time>2026-04-01T16:00:05Z</time></trkpt><trkpt lat="43.10798772689241" lon="1.124269378494155"><ele>393.0</ele><time>2026-04-01T16:00:06Z</time></trkpt><trkpt lat="43.10787388454105" lon="1.1242638901832553"><ele>391.0</ele><time>2026-04-01T16:00:07Z</time></trkpt><trkpt lat="43.10776596858456" lon="1.1242270061645177"><ele>391.0</ele><time>2026-04-01T16:00:08Z</time></trkpt><trkpt lat="43.10765704474145" lon="1.1241964071286163"><ele>391.0</ele><time>2026-04-01T16:00:09Z</time></trkpt><trkpt lat="43.10754909619977" lon="1.1241832018648001"><ele>391.0</ele><time>2026-04-01T16:00:10Z</time></trkpt><trkpt lat="43.10744733837926" lon="1.1241982803540493"><ele>391.0</ele><time>2026-04-01T16:00:11Z</time></trkpt><trkpt lat="43.10736591217597" lon="1.1241809400301883"><ele>391.0</ele><time>2026-04-01T16:00:12Z</time></trkpt><trkpt lat="43.1073038523347" lon="1.1241661983852047"><ele>391.50000000000006</ele><time>2026-04-01T16:00:13Z</time></trkpt><trkpt lat="43.107215412867596" lon="1.1241339059046773"><ele>392.0</ele><time>2026-04-01T16:00:15Z</time></trkpt><trkpt lat="43.10712852291301" lon="1.1241163476858749"><ele>392.5</ele><time>2026-04-01T16:01:54Z</time></trkpt><trkpt lat="43.107052029433575" lon="1.1240747947917376"><ele>393.0</ele><time>2026-04-01T16:01:55Z</time></trkpt><trkpt lat="43.10699267525425" lon="1.124030404177115"><ele>393.50000000000006</ele><time>2026-04-01T16:01:56Z</time></trkpt><trkpt lat="43.106949483416265" lon="1.123966156423028"><ele>394.0</ele><time>2026-04-01T16:01:57Z</time></trkpt><trkpt lat="43.10685932447067" lon="1.1238789909341924"><ele>394.00000000000006</ele><time>2026-04-01T16:01:59Z</time></trkpt><trkpt lat="43.106817139349445" lon="1.123810707470012"><ele>394.0</ele><time>2026-04-01T16:02:01Z</time></trkpt><trkpt lat="43.10674811690169" lon="1.1236912147591138"><ele>394.0</ele><time>2026-04-01T16:02:06Z</time></trkpt><trkpt lat="43.10671603401408" lon="1.1235915343443088"><ele>394.0</ele><time>2026-04-01T16:02:07Z</time></trkpt><trkpt lat="43.106646290178816" lon="1.1234926515029322"><ele>394.00000000000006</ele><time>2026-04-01T16:02:09Z</time></trkpt><trkpt lat="43.10656225085172" lon="1.1235262946741704"><ele>394.0</ele><time>2026-04-01T16:02:11Z</time></trkpt><trkpt lat="43.1065016470086" lon="1.1236127030888523"><ele>393.6</ele><time>2026-04-01T16:02:12Z</time></trkpt><trkpt lat="43.106423865880345" lon="1.123701624325293"><ele>393.2</ele><time>2026-04-01T16:02:13Z</time></trkpt><trkpt lat="43.106329403525216" lon="1.123765595310551"><ele>392.8</ele><time>2026-04-01T16:02:14Z</time></trkpt><trkpt lat="43.10622350975637" lon="1.1238317773061501"><ele>392.40000000000003</ele><time>2026-04-01T16:02:15Z</time></trkpt><trkpt lat="43.106113545048885" lon="1.1238969578098514"><ele>392.0</ele><time>2026-04-01T16:02:16Z</time></trkpt><trkpt lat="43.10599655685823" lon="1.1239527825236586"><ele>392.0</ele><time>2026-04-01T16:02:17Z</time></trkpt><trkpt lat="43.105879393380725" lon="1.1240028395178798"><ele>392.0</ele><time>2026-04-01T16:02:18Z</time></trkpt><trkpt lat="43.10575529837642" lon="1.1240402325409764"><ele>392.0</ele><time>2026-04-01T16:02:19Z</time></trkpt><trkpt lat="43.10562040358009" lon="1.1240588814226549"><ele>392.0</ele><time>2026-04-01T16:02:20Z</time></trkpt><trkpt lat="43.10547730354819" lon="1.1240683036795294"><ele>392.75</ele><time>2026-04-01T16:02:21Z</time></trkpt><trkpt lat="43.10532992657981" lon="1.1240748081996172"><ele>393.5</ele><time>2026-04-01T16:02:22Z</time></trkpt><trkpt lat="43.105189546551216" lon="1.124073789274733"><ele>394.25</ele><time>2026-04-01T16:02:23Z</time></trkpt><trkpt lat="43.10506405760832" lon="1.1240657654757997"><ele>395.0</ele><time>2026-04-01T16:02:24Z</time></trkpt><trkpt lat="43.10494791181034" lon="1.1240553117626921"><ele>395.5</ele><time>2026-04-01T16:02:25Z</time></trkpt><trkpt lat="43.104831965860456" lon="1.1240379949068147"><ele>396.0</ele><time>2026-04-01T16:02:26Z</time></trkpt><trkpt lat="43.10470976691938" lon="1.1239990892931642"><ele>396.5</ele><time>2026-04-01T16:02:27Z</time></trkpt><trkpt lat="43.10460148461835" lon="1.1239432332500432"><ele>397.0</ele><time>2026-04-01T16:02:28Z</time></trkpt><trkpt lat="43.10449448321446" lon="1.1238795343074697"><ele>397.0</ele><time>2026-04-01T16:02:29Z</time></trkpt><trkpt lat="43.10438066961829" lon="1.1238057704842468"><ele>397.0</ele><time>2026-04-01T16:02:30Z</time></trkpt><trkpt lat="43.10427479151612" lon="1.1236894055150881"><ele>397.0</ele><time>2026-04-01T16:02:31Z</time></trkpt><trkpt lat="43.10415294800145" lon="1.1236021716087286"><ele>397.0</ele><time>2026-04-01T16:02:32Z</time></trkpt><trkpt lat="43.104028045259106" lon="1.1235369694192963"><ele>400.0</ele><time>2026-04-01T16:02:33Z</time></trkpt><trkpt lat="43.103911754617954" lon="1.123456911493158"><ele>403.0</ele><time>2026-04-01T16:02:34Z</time></trkpt><trkpt lat="43.10382064592747" lon="1.123354580038872"><ele>406.0</ele><time>2026-04-01T16:02:35Z</time></trkpt><trkpt lat="43.103730138570164" lon="1.1232874444329048"><ele>409.0</ele><time>2026-04-01T16:02:36Z</time></trkpt><trkpt lat="43.103657984921085" lon="1.1232536840397243"><ele>412.0</ele><time>2026-04-01T16:02:37Z</time></trkpt><trkpt lat="43.10357379185484" lon="1.123286971760204"><ele>412.0</ele><time>2026-04-01T16:02:38Z</time></trkpt><trkpt lat="43.10348547172545" lon="1.1233846939124426"><ele>412.0</ele><time>2026-04-01T16:02:39Z</time></trkpt><trkpt lat="43.10337949026469" lon="1.1234648383042012"><ele>412.0</ele><time>2026-04-01T16:02:40Z</time></trkpt><trkpt lat="43.10326856220189" lon="1.1235700637904744"><ele>412.0</ele><time>2026-04-01T16:02:41Z</time></trkpt><trkpt lat="43.10317780936725" lon="1.123699063399241"><ele>413.5</ele><time>2026-04-01T16:02:42Z</time></trkpt><trkpt lat="43.10308339466303" lon="1.123834622343373"><ele>415.0</ele><time>2026-04-01T16:02:43Z</time></trkpt><trkpt lat="43.10298625336675" lon="1.123979960852503"><ele>416.5</ele><time>2026-04-01T16:02:44Z</time></trkpt><trkpt lat="43.102893755853955" lon="1.1241211223244618"><ele>418.0</ele><time>2026-04-01T16:02:45Z</time></trkpt><trkpt lat="43.10280213273511" lon="1.124240065394884"><ele>418.25</ele><time>2026-04-01T16:02:46Z</time></trkpt><trkpt lat="43.102705429115716" lon="1.1243225305813296"><ele>418.5</ele><time>2026-04-01T16:02:47Z</time></trkpt><trkpt lat="43.10259494178656" lon="1.1243880221526525"><ele>418.75</ele><time>2026-04-01T16:02:48Z</time></trkpt><trkpt lat="43.10248052477257" lon="1.1244308291795775"><ele>419.0</ele><time>2026-04-01T16:02:49Z</time></trkpt><trkpt lat="43.10237783141309" lon="1.1244535887152094"><ele>417.3333333333333</ele><time>2026-04-01T16:02:50Z</time></trkpt><trkpt lat="43.10229553443634" lon="1.1244356794767505"><ele>415.66666666666663</ele><time>2026-04-01T16:02:51Z</time></trkpt><trkpt lat="43.10222255820677" lon="1.124413518363626"><ele>414.0</ele><time>2026-04-01T16:02:52Z</time></trkpt><trkpt lat="43.10214166788634" lon="1.124381300008793"><ele>412.33333333333337</ele><time>2026-04-01T16:02:53Z</time></trkpt><trkpt lat="43.102050703156834" lon="1.124355597136164"><ele>410.6666666666667</ele><time>2026-04-01T16:02:54Z</time></trkpt><trkpt lat="43.10197146358034" lon="1.1243716910983452"><ele>409.0</ele><time>2026-04-01T16:02:55Z</time></trkpt><trkpt lat="43.10189345277839" lon="1.1244137657848778"><ele>409.0</ele><time>2026-04-01T16:02:56Z</time></trkpt><trkpt lat="43.10181331035918" lon="1.124447524163087"><ele>409.0</ele><time>2026-04-01T16:02:57Z</time></trkpt><trkpt lat="43.10176256695644" lon="1.1245696292608214"><ele>409.0</ele><time>2026-04-01T16:02:58Z</time></trkpt><trkpt lat="43.101695830019786" lon="1.1246846844062708"><ele>409.0</ele><time>2026-04-01T16:02:59Z</time></trkpt><trkpt lat="43.10163690982163" lon="1.1248054130148393"><ele>409.0</ele><time>2026-04-01T16:03:00Z</time></trkpt><trkpt lat="43.101571798064384" lon="1.124922153015485"><ele>408.33333333333337</ele><time>2026-04-01T16:03:01Z</time></trkpt><trkpt lat="43.101504462444574" lon="1.1249953421457193"><ele>407.6666666666667</ele><time>2026-04-01T16:03:02Z</time></trkpt><trkpt lat="43.10143605289652" lon="1.1250154789891096"><ele>407.0</ele><time>2026-04-01T16:03:03Z</time></trkpt><trkpt lat="43.10137268445301" lon="1.1250614610461045"><ele>406.33333333333337</ele><time>2026-04-01T16:03:04Z</time></trkpt><trkpt lat="43.10130209482237" lon="1.125056028630631"><ele>405.6666666666667</ele><time>2026-04-01T16:03:05Z</time></trkpt><trkpt lat="43.10122399592411" lon="1.1250493583524703"><ele>405.0</ele><time>2026-04-01T16:03:06Z</time></trkpt><trkpt lat="43.101135834541765" lon="1.1249592394191341"><ele>405.0</ele><time>2026-04-01T16:03:07Z</time></trkpt><trkpt lat="43.101050163920895" lon="1.1248970047441986"><ele>405.0</ele><time>2026-04-01T16:03:08Z</time></trkpt><trkpt lat="43.10096302090269" lon="1.124835487599638"><ele>405.0</ele><time>2026-04-01T16:03:09Z</time></trkpt><trkpt lat="43.10084700735817" lon="1.1247768913495815"><ele>405.0</ele><time>2026-04-01T16:03:10Z</time></trkpt><trkpt lat="43.1007283197612" lon="1.1247069096250408"><ele>405.0</ele><time>2026-04-01T16:03:11Z</time></trkpt><trkpt lat="43.10060864499588" lon="1.1246364429868316"><ele>405.25</ele><time>2026-04-01T16:03:12Z</time></trkpt><trkpt lat="43.100488666873424" lon="1.124566037878933"><ele>405.5</ele><time>2026-04-01T16:03:13Z</time></trkpt><trkpt lat="43.10036747655531" lon="1.124526964742053"><ele>405.75</ele><time>2026-04-01T16:03:14Z</time></trkpt><trkpt lat="43.1002552789042" lon="1.124508010242012"><ele>406.0</ele><time>2026-04-01T16:03:15Z</time></trkpt><trkpt lat="43.10016540145217" lon="1.124500270972625"><ele>406.0</ele><time>2026-04-01T16:03:16Z</time></trkpt><trkpt lat="43.10009114193759" lon="1.1244748950689287"><ele>406.0</ele><time>2026-04-01T16:03:17Z</time></trkpt><trkpt lat="43.10002637825998" lon="1.1243935097364128"><ele>406.0</ele><time>2026-04-01T16:03:18Z</time></trkpt><trkpt lat="43.10001145913019" lon="1.1242420332709842"><ele>406.0</ele><time>2026-04-01T16:03:19Z</time></trkpt><trkpt lat="43.09995340564559" lon="1.1240875679141744"><ele>406.0</ele><time>2026-04-01T16:03:20Z</time></trkpt><trkpt lat="43.099867726477264" lon="1.1239556206107717"><ele>404.0</ele><time>2026-04-01T16:03:21Z</time></trkpt><trkpt lat="43.099783438767616" lon="1.1238109283141864"><ele>402.0</ele><time>2026-04-01T16:03:22Z</time></trkpt><trkpt lat="43.09971445349538" lon="1.1236543285187677"><ele>400.0</ele><time>2026-04-01T16:03:23Z</time></trkpt><trkpt lat="43.099651530077026" lon="1.1234920168090419"><ele>398.0</ele><time>2026-04-01T16:03:24Z</time></trkpt><trkpt lat="43.09960058906625" lon="1.1233455979436444"><ele>397.59999999999997</ele><time>2026-04-01T16:03:25Z</time></trkpt><trkpt lat="43.099559903909196" lon="1.1232093444585662"><ele>397.2</ele><time>2026-04-01T16:03:26Z</time></trkpt><trkpt lat="43.09951827171966" lon="1.1230684725259874"><ele>396.8</ele><time>2026-04-01T16:03:27Z</time></trkpt><trkpt lat="43.09947578848369" lon="1.122934027506242"><ele>396.4</ele><time>2026-04-01T16:03:28Z</time></trkpt><trkpt lat="43.09944107774192" lon="1.122808479090974"><ele>396.0</ele><time>2026-04-01T16:03:29Z</time></trkpt><trkpt lat="43.0994069313594" lon="1.12267745234999"><ele>396.0</ele><time>2026-04-01T16:03:30Z</time></trkpt><trkpt lat="43.09937549656348" lon="1.1225490370877798"><ele>396.0</ele><time>2026-04-01T16:03:31Z</time></trkpt><trkpt lat="43.09934556742279" lon="1.1224177789140815"><ele>396.0</ele><time>2026-04-01T16:03:32Z</time></trkpt><trkpt lat="43.09930011025222" lon="1.1222948276396987"><ele>396.0</ele><time>2026-04-01T16:03:33Z</time></trkpt><trkpt lat="43.09926944992213" lon="1.122168653173082"><ele>396.0</ele><time>2026-04-01T16:03:34Z</time></trkpt><trkpt lat="43.09923002297604" lon="1.12205049284548"><ele>396.1666666666667</ele><time>2026-04-01T16:03:35Z</time></trkpt><trkpt lat="43.09918225168357" lon="1.1219439919071477"><ele>396.33333333333337</ele><time>2026-04-01T16:03:36Z</time></trkpt><trkpt lat="43.09913266296633" lon="1.1218470473457272"><ele>396.5</ele><time>2026-04-01T16:03:37Z</time></trkpt><trkpt lat="43.09908566662935" lon="1.1217735147485488"><ele>396.6666666666667</ele><time>2026-04-01T16:03:38Z</time></trkpt><trkpt lat="43.09897916379144" lon="1.1217280249858432"><ele>396.83333333333337</ele><time>2026-04-01T16:03:40Z</time></trkpt><trkpt lat="43.098906752169576" lon="1.1217499785162475"><ele>397.0</ele><time>2026-04-01T16:03:41Z</time></trkpt><trkpt lat="43.09881967980983" lon="1.1217961569280481"><ele>397.0</ele><time>2026-04-01T16:03:42Z</time></trkpt><trkpt lat="43.098721640944824" lon="1.1218498540416426"><ele>397.0</ele><time>2026-04-01T16:03:43Z</time></trkpt><trkpt lat="43.098619740415906" lon="1.121897692863965"><ele>397.0</ele><time>2026-04-01T16:03:44Z</time></trkpt><trkpt lat="43.09851650469237" lon="1.121927921019792"><ele>397.0</ele><time>2026-04-01T16:03:45Z</time></trkpt><trkpt lat="43.09840729162707" lon="1.1219158379785086"><ele>397.0</ele><time>2026-04-01T16:03:46Z</time></trkpt><trkpt lat="43.09829859592468" lon="1.121916723915732"><ele>396.6666666666667</ele><time>2026-04-01T16:03:47Z</time></trkpt><trkpt lat="43.09819269877697" lon="1.1219151082752343"><ele>396.33333333333337</ele><time>2026-04-01T16:03:48Z</time></trkpt><trkpt lat="43.09809484612857" lon="1.1219163439026534"><ele>396.0</ele><time>2026-04-01T16:03:49Z</time></trkpt><trkpt lat="43.09800696561373" lon="1.1218846984080753"><ele>395.66666666666663</ele><time>2026-04-01T16:03:50Z</time></trkpt><trkpt lat="43.09793896074475" lon="1.1218452645183374"><ele>395.3333333333333</ele><time>2026-04-01T16:03:51Z</time></trkpt><trkpt lat="43.09788158262189" lon="1.121806673618766"><ele>395.0</ele><time>2026-04-01T16:03:52Z</time></trkpt><trkpt lat="43.09778804065113" lon="1.1216858584148766"><ele>395.0</ele><time>2026-04-01T16:03:54Z</time></trkpt><trkpt lat="43.097718808039396" lon="1.1215797979772733"><ele>395.0</ele><time>2026-04-01T16:03:55Z</time></trkpt><trkpt lat="43.09763671477025" lon="1.1214481756830184"><ele>395.0</ele><time>2026-04-01T16:03:56Z</time></trkpt><trkpt lat="43.0975575290458" lon="1.12130145587678"><ele>395.0</ele><time>2026-04-01T16:03:57Z</time></trkpt><trkpt lat="43.09749675688798" lon="1.121162174121028"><ele>395.0</ele><time>2026-04-01T16:03:58Z</time></trkpt><trkpt lat="43.09744113911454" lon="1.1210176105069367"><ele>395.0</ele><time>2026-04-01T16:03:59Z</time></trkpt><trkpt lat="43.09739128984932" lon="1.1208893685959753"><ele>395.0</ele><time>2026-04-01T16:04:00Z</time></trkpt><trkpt lat="43.097335107496946" lon="1.1207844344659998"><ele>395.0</ele><time>2026-04-01T16:04:01Z</time></trkpt><trkpt lat="43.09729697641064" lon="1.1206745985857471"><ele>395.0</ele><time>2026-04-01T16:04:02Z</time></trkpt><trkpt lat="43.09725647494781" lon="1.120557966843356"><ele>395.0</ele><time>2026-04-01T16:04:03Z</time></trkpt><trkpt lat="43.097208950711014" lon="1.1204222015338996"><ele>395.0</ele><time>2026-04-01T16:04:04Z</time></trkpt><trkpt lat="43.09716064326584" lon="1.1202743299137028"><ele>395.0</ele><time>2026-04-01T16:04:05Z</time></trkpt><trkpt lat="43.097110653074836" lon="1.1201159394740687"><ele>395.0</ele><time>2026-04-01T16:04:06Z</time></trkpt><trkpt lat="43.097047449051594" lon="1.1199601677666713"><ele>394.25</ele><time>2026-04-01T16:04:07Z</time></trkpt><trkpt lat="43.09696041779358" lon="1.119828035478792"><ele>393.5</ele><time>2026-04-01T16:04:08Z</time></trkpt><trkpt lat="43.09685583395855" lon="1.1196984629152145"><ele>392.75</ele><time>2026-04-01T16:04:09Z</time></trkpt><trkpt lat="43.09675262693103" lon="1.119556305878476"><ele>392.0</ele><time>2026-04-01T16:04:10Z</time></trkpt><trkpt lat="43.09665178984539" lon="1.1194071934474044"><ele>390.0</ele><time>2026-04-01T16:04:11Z</time></trkpt><trkpt lat="43.09655848008258" lon="1.119261431896905"><ele>388.0</ele><time>2026-04-01T16:04:12Z</time></trkpt><trkpt lat="43.09647572415869" lon="1.1191248319032632"><ele>386.0</ele><time>2026-04-01T16:04:13Z</time></trkpt><trkpt lat="43.09642540812063" lon="1.1189827488444186"><ele>384.0</ele><time>2026-04-01T16:04:14Z</time></trkpt><trkpt lat="43.096373578078314" lon="1.1188518480645966"><ele>383.79999999999995</ele><time>2026-04-01T16:04:15Z</time></trkpt><trkpt lat="43.09631145789073" lon="1.1187290142368447"><ele>383.59999999999997</ele><time>2026-04-01T16:04:16Z</time></trkpt><trkpt lat="43.09626527025215" lon="1.1186174514546463"><ele>383.4</ele><time>2026-04-01T16:04:17Z</time></trkpt><trkpt lat="43.096216912392514" lon="1.1185448978992485"><ele>383.2</ele><time>2026-04-01T16:04:18Z</time></trkpt><trkpt lat="43.09615578254834" lon="1.1184536798438065"><ele>383.0</ele><time>2026-04-01T16:04:20Z</time></trkpt><trkpt lat="43.09618385864195" lon="1.118298292460787"><ele>382.7142857142857</ele><time>2026-04-01T16:04:22Z</time></trkpt><trkpt lat="43.09620274920883" lon="1.118216022996905"><ele>382.42857142857144</ele><time>2026-04-01T16:04:23Z</time></trkpt><trkpt lat="43.09622200021765" lon="1.1181321839228884"><ele>382.1428571428571</ele><time>2026-04-01T16:04:24Z</time></trkpt><trkpt lat="43.096241919440416" lon="1.1180454347300044"><ele>381.8571428571429</ele><time>2026-04-01T16:04:25Z</time></trkpt><trkpt lat="43.09624870566305" lon="1.1179475225103688"><ele>381.5714285714286</ele><time>2026-04-01T16:04:26Z</time></trkpt><trkpt lat="43.0962700204224" lon="1.1178563713315206"><ele>381.2857142857143</ele><time>2026-04-01T16:04:27Z</time></trkpt><trkpt lat="43.096293212538164" lon="1.1177634827013254"><ele>381.0</ele><time>2026-04-01T16:04:28Z</time></trkpt><trkpt lat="43.0963171005213" lon="1.1176603603681048"><ele>381.0</ele><time>2026-04-01T16:04:29Z</time></trkpt><trkpt lat="43.09634691914254" lon="1.1175494377956505"><ele>381.0</ele><time>2026-04-01T16:04:30Z</time></trkpt><trkpt lat="43.096379698343966" lon="1.1174420234087483"><ele>381.0</ele><time>2026-04-01T16:04:31Z</time></trkpt><trkpt lat="43.096418317007746" lon="1.1173362413328207"><ele>381.0</ele><time>2026-04-01T16:04:32Z</time></trkpt><trkpt lat="43.096454484618725" lon="1.1172300384747342"><ele>381.0</ele><time>2026-04-01T16:04:33Z</time></trkpt><trkpt lat="43.09649443727002" lon="1.1171226412143513"><ele>381.0</ele><time>2026-04-01T16:04:34Z</time></trkpt><trkpt lat="43.09653657666949" lon="1.1170143484628694"><ele>381.0</ele><time>2026-04-01T16:04:35Z</time></trkpt><trkpt lat="43.09657904213807" lon="1.116907332916713"><ele>381.0</ele><time>2026-04-01T16:04:36Z</time></trkpt><trkpt lat="43.09661644885028" lon="1.1168136476517798"><ele>381.0</ele><time>2026-04-01T16:04:37Z</time></trkpt><trkpt lat="43.09664950741208" lon="1.1167269689126416"><ele>381.0</ele><time>2026-04-01T16:04:38Z</time></trkpt><trkpt lat="43.096676772166866" lon="1.1166491221625714"><ele>381.0</ele><time>2026-04-01T16:04:39Z</time></trkpt><trkpt lat="43.09673070167011" lon="1.116546333574402"><ele>381.0</ele><time>2026-04-01T16:04:41Z</time></trkpt><trkpt lat="43.0966810746762" lon="1.1164251784307753"><ele>380.8</ele><time>2026-04-01T16:04:46Z</time></trkpt><trkpt lat="43.096572082400115" lon="1.1164119712821694"><ele>380.6</ele><time>2026-04-01T16:04:48Z</time></trkpt><trkpt lat="43.09647111230775" lon="1.1163488172133276"><ele>380.4</ele><time>2026-04-01T16:04:50Z</time></trkpt><trkpt lat="43.096382571320575" lon="1.1163080065515514"><ele>380.2</ele><time>2026-04-01T16:04:52Z</time></trkpt><trkpt lat="43.09629885421597" lon="1.1162679687081503"><ele>380.0</ele><time>2026-04-01T16:04:54Z</time></trkpt><trkpt lat="43.09621740617883" lon="1.1162364249870476"><ele>380.0</ele><time>2026-04-01T16:04:56Z</time></trkpt><trkpt lat="43.096151601203836" lon="1.116210939292903"><ele>380.0</ele><time>2026-04-01T16:05:04Z</time></trkpt><trkpt lat="43.096189267882245" lon="1.1163479235052594"><ele>380.0</ele><time>2026-04-01T16:05:10Z</time></trkpt><trkpt lat="43.09622364326864" lon="1.1162745363986764"><ele>380.0</ele><time>2026-04-01T16:05:13Z</time></trkpt><trkpt lat="43.09623994158426" lon="1.1161649044740103"><ele>380.0</ele><time>2026-04-01T16:05:19Z</time></trkpt><trkpt lat="43.09623883004705" lon="1.1160344551524521"><ele>380.0</ele><time>2026-04-01T16:05:21Z</time></trkpt><trkpt lat="43.09624144014911" lon="1.1159129500606824"><ele>380.0</ele><time>2026-04-01T16:05:24Z</time></trkpt><trkpt lat="43.09623381943966" lon="1.1157899305689336"><ele>380.0</ele><time>2026-04-01T16:05:27Z</time></trkpt><trkpt lat="43.09622924436551" lon="1.1156973496899123"><ele>380.0</ele><time>2026-04-01T16:05:30Z</time></trkpt><trkpt lat="43.09620758423407" lon="1.115575930355229"><ele>380.0</ele><time>2026-04-01T16:05:54Z</time></trkpt><trkpt lat="43.09618787508764" lon="1.1154916271633737"><ele>380.0</ele><time>2026-04-01T16:05:56Z</time></trkpt><trkpt lat="43.09616504170154" lon="1.1153807142289511"><ele>380.0</ele><time>2026-04-01T16:05:59Z</time></trkpt><trkpt lat="43.09614572750121" lon="1.1152700815568084"><ele>379.25</ele><time>2026-04-01T16:06:02Z</time></trkpt><trkpt lat="43.09612761420264" lon="1.1151701908635783"><ele>378.5</ele><time>2026-04-01T16:06:05Z</time></trkpt><trkpt lat="43.09611120416397" lon="1.115079113113228"><ele>377.75</ele><time>2026-04-01T16:06:09Z</time></trkpt><trkpt lat="43.09640412205333" lon="1.115066820517718"><ele>377.0</ele><time>2026-04-01T16:09:59Z</time></trkpt><trkpt lat="43.09635488691496" lon="1.1150023424135767"><ele>376.99999999999994</ele><time>2026-04-01T16:10:16Z</time></trkpt><trkpt lat="43.09640354014606" lon="1.115057617524153"><ele>377.0</ele><time>2026-04-01T16:10:42Z</time></trkpt><trkpt lat="43.09641197755488" lon="1.115154840138088"><ele>377.0</ele><time>2026-04-01T16:10:45Z</time></trkpt><trkpt lat="43.09642232678029" lon="1.1152454591188439"><ele>377.0</ele><time>2026-04-01T16:10:48Z</time></trkpt><trkpt lat="43.096433700515036" lon="1.1153316387742083"><ele>377.0</ele><time>2026-04-01T16:10:51Z</time></trkpt><trkpt lat="43.096477398185414" lon="1.1152593859889377"><ele>376.99999999999994</ele><time>2026-04-01T16:12:00Z</time></trkpt><trkpt lat="43.096516897747264" lon="1.1151864845717336"><ele>377.0</ele><time>2026-04-01T16:12:52Z</time></trkpt><trkpt lat="43.09645188905333" lon="1.1151596228063412"><ele>376.99999999999994</ele><time>2026-04-01T16:13:14Z</time></trkpt><trkpt lat="43.0964133684951" lon="1.115074700983576"><ele>377.0</ele><time>2026-04-01T16:14:27Z</time></trkpt><trkpt lat="43.0964715203421" lon="1.11504100346039"><ele>377.0</ele><time>2026-04-01T16:14:45Z</time></trkpt><trkpt lat="43.09642666348209" lon="1.1151067565835437"><ele>377.0</ele><time>2026-04-01T16:14:55Z</time></trkpt><trkpt lat="43.096417422049385" lon="1.1151982783509777"><ele>377.0</ele><time>2026-04-01T16:15:04Z</time></trkpt><trkpt lat="43.09643938554773" lon="1.1152959587161257"><ele>376.99999999999994</ele><time>2026-04-01T16:18:07Z</time></trkpt><trkpt lat="43.096447761288225" lon="1.1153823251939998"><ele>377.0</ele><time>2026-04-01T16:18:34Z</time></trkpt><trkpt lat="43.09644819891474" lon="1.1152919368675087"><ele>377.0</ele><time>2026-04-01T16:52:04Z</time></trkpt><trkpt lat="43.096427573106205" lon="1.1153738713116046"><ele>377.0</ele><time>2026-04-01T16:52:28Z</time></trkpt></trkseg><trkseg><trkpt lat="43.09643715668306" lon="1.1153247001523328"><ele>376.99999999999994</ele><time>2026-04-01T17:41:57Z</time></trkpt><trkpt lat="43.096452762690426" lon="1.1152346979347831"><ele>377.0</ele><time>2026-04-01T17:42:03Z</time></trkpt><trkpt lat="43.09644218165958" lon="1.115321306111383"><ele>377.0</ele><time>2026-04-01T17:46:09Z</time></trkpt><trkpt lat="43.09641294529147" lon="1.1154042558952884"><ele>377.0</ele><time>2026-04-01T17:46:16Z</time></trkpt><trkpt lat="43.09645721414293" lon="1.1153110199427274"><ele>377.0</ele><time>2026-04-01T17:47:58Z</time></trkpt><trkpt lat="43.09645294613228" lon="1.1152158452700527"><ele>376.99999999999994</ele><time>2026-04-01T17:48:04Z</time></trkpt><trkpt lat="43.096397804342075" lon="1.1152883717904845"><ele>377.0</ele><time>2026-04-01T17:48:14Z</time></trkpt><trkpt lat="43.096454006926024" lon="1.115240595171527"><ele>376.99999999999994</ele><time>2026-04-01T17:48:32Z</time></trkpt><trkpt lat="43.09649112559789" lon="1.1151633156095038"><ele>377.0</ele><time>2026-04-01T17:48:47Z</time></trkpt><trkpt lat="43.09646229693908" lon="1.1152559473206465"><ele>377.0</ele><time>2026-04-01T17:55:35Z</time></trkpt><trkpt lat="43.096398885876226" lon="1.1152654874434935"><ele>377.0</ele><time>2026-04-01T17:56:11Z</time></trkpt><trkpt lat="43.09646604601517" lon="1.1152654631998273"><ele>377.0</ele><time>2026-04-01T17:56:51Z</time></trkpt><trkpt lat="43.0964209306558" lon="1.115331357738292"><ele>376.99999999999994</ele><time>2026-04-01T17:57:32Z</time></trkpt><trkpt lat="43.09643011195797" lon="1.1154192641568215"><ele>377.0</ele><time>2026-04-01T17:59:59Z</time></trkpt><trkpt lat="43.0964596249428" lon="1.115329550145749"><ele>377.0</ele><time>2026-04-01T18:23:41Z</time></trkpt><trkpt lat="43.09649594098951" lon="1.1152510256031085"><ele>377.0</ele><time>2026-04-01T18:23:47Z</time></trkpt><trkpt lat="43.09652613437876" lon="1.115153602034093"><ele>377.0</ele><time>2026-04-01T18:23:53Z</time></trkpt><trkpt lat="43.09649898724609" lon="1.1152417331667608"><ele>377.0</ele><time>2026-04-01T18:26:15Z</time></trkpt><trkpt lat="43.09645996947227" lon="1.1153357511854418"><ele>377.0</ele><time>2026-04-01T18:26:22Z</time></trkpt><trkpt lat="43.09639614365014" lon="1.115397820929509"><ele>377.0</ele><time>2026-04-01T18:27:14Z</time></trkpt><trkpt lat="43.0964582500981" lon="1.115333462833723"><ele>376.99999999999994</ele><time>2026-04-01T18:27:43Z</time></trkpt><trkpt lat="43.096451938357355" lon="1.1152439296903867"><ele>377.0</ele><time>2026-04-01T18:27:48Z</time></trkpt><trkpt lat="43.09644432496562" lon="1.1151578584461332"><ele>377.0</ele><time>2026-04-01T18:28:44Z</time></trkpt><trkpt lat="43.09651154802457" lon="1.1151569766540248"><ele>377.0</ele><time>2026-04-01T18:28:51Z</time></trkpt><trkpt lat="43.096448603664996" lon="1.1151845510927663"><ele>377.0</ele><time>2026-04-01T18:29:21Z</time></trkpt><trkpt lat="43.09645836439642" lon="1.115277227932736"><ele>376.99999999999994</ele><time>2026-04-01T18:29:39Z</time></trkpt><trkpt lat="43.096398232805186" lon="1.1151984095488026"><ele>377.0</ele><time>2026-04-01T18:30:31Z</time></trkpt><trkpt lat="43.09645963552993" lon="1.1152191472829314"><ele>376.99999999999994</ele><time>2026-04-01T18:30:56Z</time></trkpt><trkpt lat="43.09647473838746" lon="1.1153200164768877"><ele>377.0</ele><time>2026-04-01T18:31:12Z</time></trkpt><trkpt lat="43.09643988050982" lon="1.1152361705244775"><ele>377.0</ele><time>2026-04-01T18:31:23Z</time></trkpt><trkpt lat="43.09645578482124" lon="1.1151440041118281"><ele>377.0</ele><time>2026-04-01T18:31:42Z</time></trkpt><trkpt lat="43.09652060108414" lon="1.1151610602658542"><ele>377.0</ele><time>2026-04-01T18:31:56Z</time></trkpt><trkpt lat="43.09645065520129" lon="1.1151600122499514"><ele>376.99999999999994</ele><time>2026-04-01T18:52:53Z</time></trkpt><trkpt lat="43.096428075120095" lon="1.1152445389977004"><ele>377.0</ele><time>2026-04-01T18:55:03Z</time></trkpt><trkpt lat="43.096432115176135" lon="1.1153400190452603"><ele>377.0</ele><time>2026-04-01T18:55:09Z</time></trkpt><trkpt lat="43.09641945728576" lon="1.1154316782543325"><ele>377.0</ele><time>2026-04-01T18:56:54Z</time></trkpt></trkseg><trkseg><trkpt lat="43.09645240664505" lon="1.115323325542126"><ele>376.99999999999994</ele><time>2026-04-02T05:08:27Z</time></trkpt><trkpt lat="43.09645125150822" lon="1.1152187166727687"><ele>377.0</ele><time>2026-04-02T05:08:33Z</time></trkpt><trkpt lat="43.0964659912163" lon="1.1151140674050464"><ele>377.0</ele><time>2026-04-02T05:09:00Z</time></trkpt><trkpt lat="43.09651185133419" lon="1.1151823579926607"><ele>377.0</ele><time>2026-04-02T05:09:06Z</time></trkpt><trkpt lat="43.096451946560926" lon="1.1152197894358296"><ele>377.0</ele><time>2026-04-02T05:09:21Z</time></trkpt><trkpt lat="43.09644823409704" lon="1.1153062713498707"><ele>376.99999999999994</ele><time>2026-04-02T05:09:36Z</time></trkpt><trkpt lat="43.096423626126736" lon="1.1152155401486148"><ele>377.0</ele><time>2026-04-02T05:16:50Z</time></trkpt><trkpt lat="43.09641069800469" lon="1.1151216548055982"><ele>376.99999999999994</ele><time>2026-04-02T05:17:09Z</time></trkpt><trkpt lat="43.09640435701827" lon="1.1150265024409307"><ele>377.0</ele><time>2026-04-02T05:17:17Z</time></trkpt><trkpt lat="43.09634517110934" lon="1.1149644073989604"><ele>377.0</ele><time>2026-04-02T05:17:22Z</time></trkpt><trkpt lat="43.096281708295" lon="1.1149961274132703"><ele>377.0</ele><time>2026-04-02T05:17:24Z</time></trkpt><trkpt lat="43.09620612090776" lon="1.1150176718760898"><ele>377.0</ele><time>2026-04-02T05:17:27Z</time></trkpt><trkpt lat="43.09614031959003" lon="1.1150387370222488"><ele>376.99999999999994</ele><time>2026-04-02T05:17:30Z</time></trkpt><trkpt lat="43.09611203282665" lon="1.1151257860899693"><ele>377.0</ele><time>2026-04-02T05:17:33Z</time></trkpt><trkpt lat="43.09613763838232" lon="1.1152309881203823"><ele>376.99999999999994</ele><time>2026-04-02T05:17:35Z</time></trkpt><trkpt lat="43.09615716424382" lon="1.115327349162382"><ele>377.0</ele><time>2026-04-02T05:17:37Z</time></trkpt><trkpt lat="43.096176458826875" lon="1.1154383628248201"><ele>377.0</ele><time>2026-04-02T05:17:40Z</time></trkpt><trkpt lat="43.096192014927865" lon="1.1155259099513442"><ele>377.0</ele><time>2026-04-02T05:17:42Z</time></trkpt><trkpt lat="43.096211708342786" lon="1.1156228024258166"><ele>377.0</ele><time>2026-04-02T05:17:44Z</time></trkpt><trkpt lat="43.096217901351636" lon="1.1157154838649783"><ele>376.99999999999994</ele><time>2026-04-02T05:17:46Z</time></trkpt><trkpt lat="43.09622311088481" lon="1.1158305808150935"><ele>377.0</ele><time>2026-04-02T05:17:48Z</time></trkpt><trkpt lat="43.09623322758065" lon="1.115945603507776"><ele>377.5</ele><time>2026-04-02T05:17:50Z</time></trkpt><trkpt lat="43.09623097581339" lon="1.1160644295136888"><ele>378.0</ele><time>2026-04-02T05:17:52Z</time></trkpt><trkpt lat="43.09622682793329" lon="1.116181994487988"><ele>378.5</ele><time>2026-04-02T05:17:54Z</time></trkpt><trkpt lat="43.09626423672386" lon="1.1162877453833688"><ele>379.0</ele><time>2026-04-02T05:17:57Z</time></trkpt><trkpt lat="43.096348494779534" lon="1.116325338558555"><ele>379.5</ele><time>2026-04-02T05:17:59Z</time></trkpt><trkpt lat="43.096423186777" lon="1.1163405156146908"><ele>380.0</ele><time>2026-04-02T05:18:00Z</time></trkpt><trkpt lat="43.096497923820785" lon="1.1163691779909266"><ele>380.0</ele><time>2026-04-02T05:18:01Z</time></trkpt><trkpt lat="43.096569547516715" lon="1.1163991266339406"><ele>380.0</ele><time>2026-04-02T05:18:02Z</time></trkpt><trkpt lat="43.09666906215852" lon="1.1164456346653402"><ele>380.0</ele><time>2026-04-02T05:18:04Z</time></trkpt><trkpt lat="43.09671618718254" lon="1.116527422288017"><ele>380.0</ele><time>2026-04-02T05:18:07Z</time></trkpt><trkpt lat="43.09668728619235" lon="1.1166250760740097"><ele>380.0</ele><time>2026-04-02T05:18:09Z</time></trkpt><trkpt lat="43.09661232880852" lon="1.1167830842975814"><ele>380.1666666666667</ele><time>2026-04-02T05:18:11Z</time></trkpt><trkpt lat="43.096571546150045" lon="1.1168851769169947"><ele>380.33333333333337</ele><time>2026-04-02T05:18:12Z</time></trkpt><trkpt lat="43.09653157480874" lon="1.1169884792371296"><ele>380.5</ele><time>2026-04-02T05:18:13Z</time></trkpt><trkpt lat="43.09648856918771" lon="1.117090522241418"><ele>380.6666666666667</ele><time>2026-04-02T05:18:14Z</time></trkpt><trkpt lat="43.0964449480095" lon="1.1171948195498507"><ele>380.8333333333333</ele><time>2026-04-02T05:18:15Z</time></trkpt><trkpt lat="43.09640549588377" lon="1.117304200670605"><ele>381.0</ele><time>2026-04-02T05:18:16Z</time></trkpt><trkpt lat="43.09636708678536" lon="1.1174201629841645"><ele>381.0</ele><time>2026-04-02T05:18:17Z</time></trkpt><trkpt lat="43.0963303887049" lon="1.1175361132568302"><ele>381.0</ele><time>2026-04-02T05:18:18Z</time></trkpt><trkpt lat="43.09629560464217" lon="1.1176544059171862"><ele>381.0</ele><time>2026-04-02T05:18:19Z</time></trkpt><trkpt lat="43.09626844303587" lon="1.117776151731425"><ele>381.0</ele><time>2026-04-02T05:18:20Z</time></trkpt><trkpt lat="43.09624376398717" lon="1.1178982072238008"><ele>381.0</ele><time>2026-04-02T05:18:21Z</time></trkpt><trkpt lat="43.0962175180019" lon="1.1180167586590084"><ele>381.0</ele><time>2026-04-02T05:18:22Z</time></trkpt><trkpt lat="43.096191328416566" lon="1.1181336842203478"><ele>381.0</ele><time>2026-04-02T05:18:23Z</time></trkpt><trkpt lat="43.09616622615882" lon="1.118235047516421"><ele>381.0</ele><time>2026-04-02T05:18:24Z</time></trkpt><trkpt lat="43.096141601994624" lon="1.1183492773099775"><ele>381.0</ele><time>2026-04-02T05:18:25Z</time></trkpt><trkpt lat="43.09610705567616" lon="1.118472604580319"><ele>381.0</ele><time>2026-04-02T05:18:26Z</time></trkpt><trkpt lat="43.09606317063379" lon="1.1185942491477379"><ele>381.4</ele><time>2026-04-02T05:18:27Z</time></trkpt><trkpt lat="43.09601130589443" lon="1.1187224833049196"><ele>381.8</ele><time>2026-04-02T05:18:28Z</time></trkpt><trkpt lat="43.0959385221045" lon="1.1188301849984017"><ele>382.2</ele><time>2026-04-02T05:18:29Z</time></trkpt><trkpt lat="43.09586987923941" lon="1.1189402557148613"><ele>382.59999999999997</ele><time>2026-04-02T05:18:30Z</time></trkpt><trkpt lat="43.09580905615465" lon="1.1190585152244128"><ele>383.0</ele><time>2026-04-02T05:18:31Z</time></trkpt><trkpt lat="43.095729516844145" lon="1.1191515760755657"><ele>381.59999999999997</ele><time>2026-04-02T05:18:32Z</time></trkpt><trkpt lat="43.09564804562932" lon="1.1192378703268346"><ele>380.2</ele><time>2026-04-02T05:18:33Z</time></trkpt><trkpt lat="43.0955670284059" lon="1.1193185883034016"><ele>378.8</ele><time>2026-04-02T05:18:34Z</time></trkpt><trkpt lat="43.09548937322994" lon="1.1193933605692092"><ele>377.4</ele><time>2026-04-02T05:18:35Z</time></trkpt><trkpt lat="43.095418914916806" lon="1.1194638248456492"><ele>376.0</ele><time>2026-04-02T05:18:36Z</time></trkpt><trkpt lat="43.095353508311604" lon="1.1195310262656948"><ele>376.0</ele><time>2026-04-02T05:18:37Z</time></trkpt><trkpt lat="43.09529341783435" lon="1.1195930011302884"><ele>376.0</ele><time>2026-04-02T05:18:38Z</time></trkpt><trkpt lat="43.09524182821285" lon="1.1196671932409776"><ele>376.0</ele><time>2026-04-02T05:18:39Z</time></trkpt><trkpt lat="43.09519140667136" lon="1.1197381688270953"><ele>376.0</ele><time>2026-04-02T05:18:40Z</time></trkpt><trkpt lat="43.09514922614903" lon="1.1198159548920288"><ele>376.0</ele><time>2026-04-02T05:18:41Z</time></trkpt><trkpt lat="43.095109594157314" lon="1.1198927114377886"><ele>376.0</ele><time>2026-04-02T05:18:42Z</time></trkpt><trkpt lat="43.09506691993891" lon="1.1199785460870817"><ele>376.0</ele><time>2026-04-02T05:18:43Z</time></trkpt><trkpt lat="43.09502421024097" lon="1.1200597975785958"><ele>376.66666666666663</ele><time>2026-04-02T05:18:44Z</time></trkpt><trkpt lat="43.09498442171925" lon="1.1201431549286924"><ele>377.3333333333333</ele><time>2026-04-02T05:18:45Z</time></trkpt><trkpt lat="43.09494454791024" lon="1.1202276282209864"><ele>378.0</ele><time>2026-04-02T05:18:46Z</time></trkpt><trkpt lat="43.09490135917622" lon="1.1203046603361395"><ele>378.6666666666667</ele><time>2026-04-02T05:18:47Z</time></trkpt><trkpt lat="43.094819743459965" lon="1.1204449844349864"><ele>379.33333333333337</ele><time>2026-04-02T05:18:49Z</time></trkpt><trkpt lat="43.09477711581987" lon="1.1205204510461784"><ele>380.0</ele><time>2026-04-02T05:18:50Z</time></trkpt><trkpt lat="43.094733864956574" lon="1.120602375181354"><ele>379.33333333333337</ele><time>2026-04-02T05:18:51Z</time></trkpt><trkpt lat="43.09468812787973" lon="1.1206912524653914"><ele>378.6666666666667</ele><time>2026-04-02T05:18:52Z</time></trkpt><trkpt lat="43.094639058839235" lon="1.1207850285570715"><ele>378.0</ele><time>2026-04-02T05:18:53Z</time></trkpt><trkpt lat="43.094589028700916" lon="1.12088425853512"><ele>377.3333333333333</ele><time>2026-04-02T05:18:54Z</time></trkpt><trkpt lat="43.09453824746098" lon="1.1209822475997433"><ele>376.66666666666663</ele><time>2026-04-02T05:18:55Z</time></trkpt><trkpt lat="43.09448710528438" lon="1.1210902234193378"><ele>376.0</ele><time>2026-04-02T05:18:56Z</time></trkpt><trkpt lat="43.09443028053154" lon="1.1211997887698966"><ele>376.0</ele><time>2026-04-02T05:18:57Z</time></trkpt><trkpt lat="43.09436651722163" lon="1.121301873549479"><ele>376.0</ele><time>2026-04-02T05:18:58Z</time></trkpt><trkpt lat="43.09429780491107" lon="1.1214061264351198"><ele>376.0</ele><time>2026-04-02T05:18:59Z</time></trkpt><trkpt lat="43.094225569335464" lon="1.1215057666314794"><ele>376.0</ele><time>2026-04-02T05:19:00Z</time></trkpt><trkpt lat="43.0941533153708" lon="1.1216004073251713"><ele>376.0</ele><time>2026-04-02T05:19:01Z</time></trkpt><trkpt lat="43.09409735699996" lon="1.1217060215632417"><ele>374.8333333333333</ele><time>2026-04-02T05:19:02Z</time></trkpt><trkpt lat="43.09404891713216" lon="1.121819321524664"><ele>373.66666666666663</ele><time>2026-04-02T05:19:03Z</time></trkpt><trkpt lat="43.094011371970744" lon="1.121938732449843"><ele>372.5</ele><time>2026-04-02T05:19:04Z</time></trkpt><trkpt lat="43.093974554789085" lon="1.1220485260683286"><ele>371.3333333333333</ele><time>2026-04-02T05:19:05Z</time></trkpt><trkpt lat="43.09391997664062" lon="1.122134307360763"><ele>370.1666666666667</ele><time>2026-04-02T05:19:06Z</time></trkpt><trkpt lat="43.09387020243585" lon="1.122219975393009"><ele>369.0</ele><time>2026-04-02T05:19:07Z</time></trkpt><trkpt lat="43.0938087416883" lon="1.1222831737928733"><ele>369.0</ele><time>2026-04-02T05:19:08Z</time></trkpt><trkpt lat="43.09375173872605" lon="1.1223584623632141"><ele>369.0</ele><time>2026-04-02T05:19:09Z</time></trkpt><trkpt lat="43.093708831445504" lon="1.1224478261083264"><ele>369.0</ele><time>2026-04-02T05:19:10Z</time></trkpt><trkpt lat="43.09365740399952" lon="1.12252205856185"><ele>369.0</ele><time>2026-04-02T05:19:11Z</time></trkpt><trkpt lat="43.0936079845223" lon="1.1226013280311053"><ele>369.0</ele><time>2026-04-02T05:19:12Z</time></trkpt><trkpt lat="43.0935727570692" lon="1.1226838315239172"><ele>369.0</ele><time>2026-04-02T05:19:13Z</time></trkpt><trkpt lat="43.093547912894536" lon="1.1227735947484923"><ele>369.0</ele><time>2026-04-02T05:19:14Z</time></trkpt><trkpt lat="43.09352781964217" lon="1.1228667105171903"><ele>368.6666666666667</ele><time>2026-04-02T05:19:15Z</time></trkpt><trkpt lat="43.09351064228507" lon="1.1229595862889883"><ele>368.3333333333333</ele><time>2026-04-02T05:19:16Z</time></trkpt><trkpt lat="43.09349519310761" lon="1.1230495109447345"><ele>368.0</ele><time>2026-04-02T05:19:17Z</time></trkpt><trkpt lat="43.09347514338598" lon="1.1231377132020475"><ele>367.66666666666663</ele><time>2026-04-02T05:19:18Z</time></trkpt><trkpt lat="43.09345706003387" lon="1.1232932035186332"><ele>367.3333333333333</ele><time>2026-04-02T05:19:20Z</time></trkpt><trkpt lat="43.093466639563474" lon="1.1234144035417546"><ele>367.0</ele><time>2026-04-02T05:20:34Z</time></trkpt><trkpt lat="43.09346451447544" lon="1.1235106531887815"><ele>367.0</ele><time>2026-04-02T05:20:35Z</time></trkpt><trkpt lat="43.0934762391301" lon="1.1236084837891473"><ele>367.0</ele><time>2026-04-02T05:20:36Z</time></trkpt><trkpt lat="43.09349413888234" lon="1.12371217809229"><ele>367.0</ele><time>2026-04-02T05:20:37Z</time></trkpt><trkpt lat="43.093513227634716" lon="1.123814228882694"><ele>367.0</ele><time>2026-04-02T05:20:38Z</time></trkpt><trkpt lat="43.09353054718715" lon="1.1239054014006487"><ele>367.0</ele><time>2026-04-02T05:20:39Z</time></trkpt><trkpt lat="43.09354655310385" lon="1.1239977585157384"><ele>367.0</ele><time>2026-04-02T05:20:40Z</time></trkpt><trkpt lat="43.09357904708173" lon="1.1241630855835845"><ele>366.5</ele><time>2026-04-02T05:20:42Z</time></trkpt><trkpt lat="43.09360832157173" lon="1.1242608797262013"><ele>366.0</ele><time>2026-04-02T05:20:43Z</time></trkpt><trkpt lat="43.093691928298355" lon="1.1243316826713885"><ele>365.5</ele><time>2026-04-02T05:20:44Z</time></trkpt><trkpt lat="43.09375541014366" lon="1.1244128461976992"><ele>365.0</ele><time>2026-04-02T05:20:45Z</time></trkpt><trkpt lat="43.0938019939481" lon="1.1245097649319764"><ele>364.5</ele><time>2026-04-02T05:20:46Z</time></trkpt><trkpt lat="43.09385227677127" lon="1.1245797923206293"><ele>364.0</ele><time>2026-04-02T05:20:47Z</time></trkpt><trkpt lat="43.093866333016024" lon="1.1246794332075294"><ele>364.0</ele><time>2026-04-02T05:20:48Z</time></trkpt><trkpt lat="43.09385876470989" lon="1.1247834414191087"><ele>364.0</ele><time>2026-04-02T05:20:49Z</time></trkpt><trkpt lat="43.09381539084789" lon="1.1248702513445927"><ele>364.0</ele><time>2026-04-02T05:20:50Z</time></trkpt><trkpt lat="43.09377869315859" lon="1.12495151606431"><ele>364.0</ele><time>2026-04-02T05:20:51Z</time></trkpt><trkpt lat="43.09374814692138" lon="1.1250515032357722"><ele>364.0</ele><time>2026-04-02T05:20:52Z</time></trkpt><trkpt lat="43.0937106557308" lon="1.125139199001755"><ele>364.0</ele><time>2026-04-02T05:20:53Z</time></trkpt><trkpt lat="43.093674797837" lon="1.1252194932883899"><ele>364.0</ele><time>2026-04-02T05:20:54Z</time></trkpt><trkpt lat="43.09363864995257" lon="1.1253023350002682"><ele>364.79999999999995</ele><time>2026-04-02T05:20:55Z</time></trkpt><trkpt lat="43.093606473788114" lon="1.1254006247042403"><ele>365.59999999999997</ele><time>2026-04-02T05:20:56Z</time></trkpt><trkpt lat="43.09358178134276" lon="1.1255217455292816"><ele>366.4</ele><time>2026-04-02T05:20:57Z</time></trkpt><trkpt lat="43.09356928453216" lon="1.1256448670003072"><ele>367.2</ele><time>2026-04-02T05:20:58Z</time></trkpt><trkpt lat="43.09357685791862" lon="1.1257957009323356"><ele>368.0</ele><time>2026-04-02T05:20:59Z</time></trkpt><trkpt lat="43.093597068459324" lon="1.1259527148847848"><ele>368.4</ele><time>2026-04-02T05:21:00Z</time></trkpt><trkpt lat="43.09361871782217" lon="1.1261063839962568"><ele>368.79999999999995</ele><time>2026-04-02T05:21:01Z</time></trkpt><trkpt lat="43.093634704894754" lon="1.1262354045803813"><ele>369.2</ele><time>2026-04-02T05:21:02Z</time></trkpt><trkpt lat="43.093645104895934" lon="1.1263666612006744"><ele>369.6</ele><time>2026-04-02T05:21:03Z</time></trkpt><trkpt lat="43.093651412396916" lon="1.1265190659637039"><ele>370.0</ele><time>2026-04-02T05:21:04Z</time></trkpt><trkpt lat="43.093654249282615" lon="1.1266740267013555"><ele>370.75</ele><time>2026-04-02T05:21:05Z</time></trkpt><trkpt lat="43.093649921679855" lon="1.1268394822738994"><ele>371.5</ele><time>2026-04-02T05:21:06Z</time></trkpt><trkpt lat="43.093637865543016" lon="1.1270115690744529"><ele>372.25</ele><time>2026-04-02T05:21:07Z</time></trkpt><trkpt lat="43.09361541858029" lon="1.1271917878374589"><ele>373.0</ele><time>2026-04-02T05:21:08Z</time></trkpt><trkpt lat="43.09359258977523" lon="1.1273765523051567"><ele>373.75</ele><time>2026-04-02T05:21:09Z</time></trkpt><trkpt lat="43.09357244600567" lon="1.1275773538408154"><ele>374.5</ele><time>2026-04-02T05:21:10Z</time></trkpt><trkpt lat="43.0935547518574" lon="1.1277816112737105"><ele>375.25</ele><time>2026-04-02T05:21:11Z</time></trkpt><trkpt lat="43.09353342793713" lon="1.1279835919935581"><ele>376.0</ele><time>2026-04-02T05:21:12Z</time></trkpt><trkpt lat="43.09351157894058" lon="1.1281792817949077"><ele>376.25</ele><time>2026-04-02T05:21:13Z</time></trkpt><trkpt lat="43.0934911085171" lon="1.1283793373020834"><ele>376.5</ele><time>2026-04-02T05:21:14Z</time></trkpt><trkpt lat="43.093473931595" lon="1.128581777684045"><ele>376.75</ele><time>2026-04-02T05:21:15Z</time></trkpt><trkpt lat="43.09346327054469" lon="1.1287841500243068"><ele>377.0</ele><time>2026-04-02T05:21:16Z</time></trkpt><trkpt lat="43.09346394483697" lon="1.1289849703925166"><ele>377.0</ele><time>2026-04-02T05:21:17Z</time></trkpt><trkpt lat="43.093455787011756" lon="1.129193320632878"><ele>377.0</ele><time>2026-04-02T05:21:18Z</time></trkpt><trkpt lat="43.09346790138474" lon="1.1293952136043672"><ele>377.0</ele><time>2026-04-02T05:21:19Z</time></trkpt><trkpt lat="43.0934998449436" lon="1.1295980918849398"><ele>377.0</ele><time>2026-04-02T05:21:20Z</time></trkpt><trkpt lat="43.093514274720526" lon="1.1298021220998593"><ele>377.0</ele><time>2026-04-02T05:21:21Z</time></trkpt><trkpt lat="43.09353096409938" lon="1.1300060701558783"><ele>377.0</ele><time>2026-04-02T05:21:22Z</time></trkpt><trkpt lat="43.093551967682174" lon="1.130208800902874"><ele>377.0</ele><time>2026-04-02T05:21:23Z</time></trkpt><trkpt lat="43.09357317805333" lon="1.1304161010702463"><ele>378.0</ele><time>2026-04-02T05:21:24Z</time></trkpt><trkpt lat="43.09358973951407" lon="1.1306224654791945"><ele>379.0</ele><time>2026-04-02T05:21:25Z</time></trkpt><trkpt lat="43.093603583475755" lon="1.1308291694428774"><ele>380.0</ele><time>2026-04-02T05:21:26Z</time></trkpt><trkpt lat="43.09361692347768" lon="1.13103415582955"><ele>380.0</ele><time>2026-04-02T05:21:27Z</time></trkpt><trkpt lat="43.093631535337785" lon="1.1312412608386382"><ele>380.0</ele><time>2026-04-02T05:21:28Z</time></trkpt><trkpt lat="43.09364730433879" lon="1.1314462644271261"><ele>380.0</ele><time>2026-04-02T05:21:29Z</time></trkpt><trkpt lat="43.09366796123677" lon="1.1316512179439118"><ele>380.0</ele><time>2026-04-02T05:21:30Z</time></trkpt><trkpt lat="43.09369952671801" lon="1.1318492484152194"><ele>380.0</ele><time>2026-04-02T05:21:31Z</time></trkpt><trkpt lat="43.09374342458786" lon="1.1320402979125972"><ele>380.0</ele><time>2026-04-02T05:21:32Z</time></trkpt><trkpt lat="43.093787588032576" lon="1.1322244348771249"><ele>380.0</ele><time>2026-04-02T05:21:33Z</time></trkpt><trkpt lat="43.09382383500879" lon="1.1324007089362067"><ele>380.25</ele><time>2026-04-02T05:21:34Z</time></trkpt><trkpt lat="43.093864250762756" lon="1.1325657132741933"><ele>380.5</ele><time>2026-04-02T05:21:35Z</time></trkpt><trkpt lat="43.093920767043016" lon="1.1327149510158934"><ele>380.75</ele><time>2026-04-02T05:21:36Z</time></trkpt><trkpt lat="43.09399458059346" lon="1.1328429018365156"><ele>381.0</ele><time>2026-04-02T05:21:37Z</time></trkpt><trkpt lat="43.09407927690669" lon="1.132957324478716"><ele>381.25</ele><time>2026-04-02T05:21:38Z</time></trkpt><trkpt lat="43.094178037589806" lon="1.1330942438056988"><ele>381.5</ele><time>2026-04-02T05:21:39Z</time></trkpt><trkpt lat="43.0942587689529" lon="1.1332545538144108"><ele>381.75</ele><time>2026-04-02T05:21:40Z</time></trkpt><trkpt lat="43.09432183059247" lon="1.1334314114426318"><ele>382.0</ele><time>2026-04-02T05:21:41Z</time></trkpt><trkpt lat="43.09436895879448" lon="1.1336119806012328"><ele>382.8</ele><time>2026-04-02T05:21:42Z</time></trkpt><trkpt lat="43.0944085583623" lon="1.1337846751614205"><ele>383.6</ele><time>2026-04-02T05:21:43Z</time></trkpt><trkpt lat="43.09443680900485" lon="1.133937648482409"><ele>384.40000000000003</ele><time>2026-04-02T05:21:44Z</time></trkpt><trkpt lat="43.094454367904056" lon="1.1340697660345174"><ele>385.20000000000005</ele><time>2026-04-02T05:21:45Z</time></trkpt><trkpt lat="43.09446364925396" lon="1.1341763212808222"><ele>386.0</ele><time>2026-04-02T05:21:46Z</time></trkpt><trkpt lat="43.09447544570371" lon="1.1342647205799838"><ele>386.8</ele><time>2026-04-02T05:21:47Z</time></trkpt><trkpt lat="43.09448921126944" lon="1.1343586106903"><ele>387.6</ele><time>2026-04-02T05:21:48Z</time></trkpt><trkpt lat="43.094554070095256" lon="1.1344787499187223"><ele>388.4</ele><time>2026-04-02T05:21:49Z</time></trkpt><trkpt lat="43.09464597837749" lon="1.1345990024686008"><ele>389.2</ele><time>2026-04-02T05:21:50Z</time></trkpt><trkpt lat="43.09472312784426" lon="1.134739164163717"><ele>390.0</ele><time>2026-04-02T05:21:51Z</time></trkpt><trkpt lat="43.09476633690567" lon="1.1348914742952563"><ele>389.75</ele><time>2026-04-02T05:21:52Z</time></trkpt><trkpt lat="43.09482238008875" lon="1.1350614457857202"><ele>389.5</ele><time>2026-04-02T05:21:53Z</time></trkpt><trkpt lat="43.094892381479" lon="1.1352329030175705"><ele>389.25</ele><time>2026-04-02T05:21:54Z</time></trkpt><trkpt lat="43.09494124830813" lon="1.135420464182893"><ele>389.0</ele><time>2026-04-02T05:21:55Z</time></trkpt><trkpt lat="43.094991808662854" lon="1.1356018585798855"><ele>389.5</ele><time>2026-04-02T05:21:56Z</time></trkpt><trkpt lat="43.095040298036" lon="1.1357740736391968"><ele>390.0</ele><time>2026-04-02T05:21:57Z</time></trkpt><trkpt lat="43.0950913149784" lon="1.1359582066984413"><ele>390.5</ele><time>2026-04-02T05:21:58Z</time></trkpt><trkpt lat="43.09514629093035" lon="1.1361437498269908"><ele>391.0</ele><time>2026-04-02T05:21:59Z</time></trkpt><trkpt lat="43.09521184492142" lon="1.1363222676614244"><ele>391.0</ele><time>2026-04-02T05:22:00Z</time></trkpt><trkpt lat="43.09529362692182" lon="1.1364804786964648"><ele>391.0</ele><time>2026-04-02T05:22:01Z</time></trkpt><trkpt lat="43.09538450029319" lon="1.136622813757071"><ele>391.0</ele><time>2026-04-02T05:22:02Z</time></trkpt><trkpt lat="43.09547158911817" lon="1.1367701651222535"><ele>391.0</ele><time>2026-04-02T05:22:03Z</time></trkpt><trkpt lat="43.09555177740145" lon="1.1369256585765102"><ele>391.75</ele><time>2026-04-02T05:22:04Z</time></trkpt><trkpt lat="43.09558044375989" lon="1.137074875024608"><ele>392.5</ele><time>2026-04-02T05:22:05Z</time></trkpt><trkpt lat="43.095612685963644" lon="1.1372223049769712"><ele>393.25</ele><time>2026-04-02T05:22:06Z</time></trkpt><trkpt lat="43.09557724526831" lon="1.1373670594250953"><ele>394.0</ele><time>2026-04-02T05:22:07Z</time></trkpt><trkpt lat="43.095565065690366" lon="1.1375511251340535"><ele>395.25</ele><time>2026-04-02T05:22:08Z</time></trkpt><trkpt lat="43.09555260451668" lon="1.1377470200095956"><ele>396.5</ele><time>2026-04-02T05:22:09Z</time></trkpt><trkpt lat="43.09556357152075" lon="1.1379524707540682"><ele>397.75</ele><time>2026-04-02T05:22:10Z</time></trkpt><trkpt lat="43.095574106876605" lon="1.1381623360365651"><ele>399.0</ele><time>2026-04-02T05:22:11Z</time></trkpt><trkpt lat="43.09560854384701" lon="1.1383672895777448"><ele>399.66666666666663</ele><time>2026-04-02T05:22:12Z</time></trkpt><trkpt lat="43.095657536495075" lon="1.1385658996372676"><ele>400.3333333333333</ele><time>2026-04-02T05:22:13Z</time></trkpt><trkpt lat="43.09571064730754" lon="1.1387678990306815"><ele>401.0</ele><time>2026-04-02T05:22:14Z</time></trkpt><trkpt lat="43.09574844412152" lon="1.1389754993988455"><ele>401.3333333333333</ele><time>2026-04-02T05:22:15Z</time></trkpt><trkpt lat="43.09578711293769" lon="1.1391775456470588"><ele>401.66666666666663</ele><time>2026-04-02T05:22:16Z</time></trkpt><trkpt lat="43.09582577987245" lon="1.1393779266814916"><ele>402.0</ele><time>2026-04-02T05:22:17Z</time></trkpt><trkpt lat="43.09584854521252" lon="1.1395776618836782"><ele>402.0</ele><time>2026-04-02T05:22:18Z</time></trkpt><trkpt lat="43.09583827022308" lon="1.1397786854719283"><ele>402.0</ele><time>2026-04-02T05:22:19Z</time></trkpt><trkpt lat="43.09581424029549" lon="1.139975211786348"><ele>402.0</ele><time>2026-04-02T05:22:20Z</time></trkpt><trkpt lat="43.09578224478999" lon="1.14016930630397"><ele>402.0</ele><time>2026-04-02T05:22:21Z</time></trkpt><trkpt lat="43.09574303810919" lon="1.1403687741058743"><ele>402.66666666666663</ele><time>2026-04-02T05:22:22Z</time></trkpt><trkpt lat="43.09570153292931" lon="1.1405700561339116"><ele>403.3333333333333</ele><time>2026-04-02T05:22:23Z</time></trkpt><trkpt lat="43.09567456279922" lon="1.1407772472039932"><ele>404.0</ele><time>2026-04-02T05:22:24Z</time></trkpt><trkpt lat="43.09563245922869" lon="1.1409739453319598"><ele>405.25</ele><time>2026-04-02T05:22:25Z</time></trkpt><trkpt lat="43.095595760209186" lon="1.1411735508478118"><ele>406.5</ele><time>2026-04-02T05:22:26Z</time></trkpt><trkpt lat="43.09557325620009" lon="1.1413725345026537"><ele>407.75</ele><time>2026-04-02T05:22:27Z</time></trkpt><trkpt lat="43.095569521345496" lon="1.141567590374722"><ele>409.0</ele><time>2026-04-02T05:22:28Z</time></trkpt><trkpt lat="43.095596664029124" lon="1.1417634793353075"><ele>409.5</ele><time>2026-04-02T05:22:29Z</time></trkpt><trkpt lat="43.09564900443801" lon="1.1419521318586103"><ele>410.0</ele><time>2026-04-02T05:22:30Z</time></trkpt><trkpt lat="43.095712768599824" lon="1.1421336262393942"><ele>410.5</ele><time>2026-04-02T05:22:31Z</time></trkpt><trkpt lat="43.0957668118385" lon="1.1423103681603965"><ele>411.0</ele><time>2026-04-02T05:22:32Z</time></trkpt><trkpt lat="43.09580349390475" lon="1.1424760773369298"><ele>412.25</ele><time>2026-04-02T05:22:33Z</time></trkpt><trkpt lat="43.09582621165249" lon="1.1426230285822712"><ele>413.5</ele><time>2026-04-02T05:22:34Z</time></trkpt><trkpt lat="43.09583976120705" lon="1.142774548546019"><ele>414.75</ele><time>2026-04-02T05:22:35Z</time></trkpt><trkpt lat="43.09584082828616" lon="1.1429408365159415"><ele>416.0</ele><time>2026-04-02T05:22:36Z</time></trkpt><trkpt lat="43.09583249761122" lon="1.1431202386750394"><ele>416.75</ele><time>2026-04-02T05:22:37Z</time></trkpt><trkpt lat="43.095817947722814" lon="1.1433050588198308"><ele>417.5</ele><time>2026-04-02T05:22:38Z</time></trkpt><trkpt lat="43.09580643429101" lon="1.1434933040919284"><ele>418.25</ele><time>2026-04-02T05:22:39Z</time></trkpt><trkpt lat="43.09579397410594" lon="1.143675609592351"><ele>419.0</ele><time>2026-04-02T05:22:40Z</time></trkpt><trkpt lat="43.095780680846104" lon="1.1438399699567796"><ele>419.0</ele><time>2026-04-02T05:22:41Z</time></trkpt><trkpt lat="43.095769781772916" lon="1.1439944982480001"><ele>419.0</ele><time>2026-04-02T05:22:42Z</time></trkpt><trkpt lat="43.095762655237664" lon="1.1441480405505928"><ele>419.0</ele><time>2026-04-02T05:22:43Z</time></trkpt><trkpt lat="43.09575506250412" lon="1.1442995297810918"><ele>419.0</ele><time>2026-04-02T05:22:44Z</time></trkpt><trkpt lat="43.095745519229126" lon="1.144459956628515"><ele>419.5</ele><time>2026-04-02T05:22:45Z</time></trkpt><trkpt lat="43.09573052327502" lon="1.1446303171749557"><ele>420.0</ele><time>2026-04-02T05:22:46Z</time></trkpt><trkpt lat="43.09569493490637" lon="1.1447930677057314"><ele>420.5</ele><time>2026-04-02T05:22:47Z</time></trkpt><trkpt lat="43.095652745643754" lon="1.14495493944091"><ele>421.0</ele><time>2026-04-02T05:22:48Z</time></trkpt><trkpt lat="43.09558526461538" lon="1.1451110004013025"><ele>421.0</ele><time>2026-04-02T05:22:49Z</time></trkpt><trkpt lat="43.09552151466138" lon="1.1452816016832237"><ele>421.0</ele><time>2026-04-02T05:22:50Z</time></trkpt><trkpt lat="43.09544025355079" lon="1.1454378931218197"><ele>421.0</ele><time>2026-04-02T05:22:51Z</time></trkpt><trkpt lat="43.095367248723505" lon="1.1455948135911027"><ele>421.0</ele><time>2026-04-02T05:22:52Z</time></trkpt><trkpt lat="43.09529880167274" lon="1.1457461367585016"><ele>421.0</ele><time>2026-04-02T05:22:53Z</time></trkpt><trkpt lat="43.095229684014704" lon="1.1458968110809358"><ele>421.0</ele><time>2026-04-02T05:22:54Z</time></trkpt><trkpt lat="43.09515921154072" lon="1.1460494391306222"><ele>421.0</ele><time>2026-04-02T05:22:55Z</time></trkpt><trkpt lat="43.09509641955906" lon="1.1461972848665285"><ele>421.0</ele><time>2026-04-02T05:22:56Z</time></trkpt><trkpt lat="43.09505128111706" lon="1.146338668310911"><ele>421.0</ele><time>2026-04-02T05:22:57Z</time></trkpt><trkpt lat="43.09502700386429" lon="1.1464759981017192"><ele>421.0</ele><time>2026-04-02T05:22:58Z</time></trkpt><trkpt lat="43.09501796633234" lon="1.1466139984985988"><ele>421.0</ele><time>2026-04-02T05:22:59Z</time></trkpt><trkpt lat="43.09501756924741" lon="1.1467598306461164"><ele>421.0</ele><time>2026-04-02T05:23:00Z</time></trkpt><trkpt lat="43.09501503199876" lon="1.1469137132375657"><ele>421.0</ele><time>2026-04-02T05:23:01Z</time></trkpt><trkpt lat="43.09500632507796" lon="1.1470695077273445"><ele>421.25</ele><time>2026-04-02T05:23:02Z</time></trkpt><trkpt lat="43.09499224747944" lon="1.1472315530833141"><ele>421.5</ele><time>2026-04-02T05:23:03Z</time></trkpt><trkpt lat="43.09497790287068" lon="1.1473959419762731"><ele>421.75</ele><time>2026-04-02T05:23:04Z</time></trkpt><trkpt lat="43.09496309583477" lon="1.1475567213813231"><ele>422.0</ele><time>2026-04-02T05:23:05Z</time></trkpt><trkpt lat="43.09496469810711" lon="1.1477027219838747"><ele>422.0</ele><time>2026-04-02T05:23:06Z</time></trkpt><trkpt lat="43.094968514233294" lon="1.1478455666158158"><ele>422.0</ele><time>2026-04-02T05:23:07Z</time></trkpt><trkpt lat="43.09497234255084" lon="1.1479992940419865"><ele>422.0</ele><time>2026-04-02T05:23:08Z</time></trkpt><trkpt lat="43.0949693222046" lon="1.1481563760438118"><ele>422.0</ele><time>2026-04-02T05:23:09Z</time></trkpt><trkpt lat="43.09493411883539" lon="1.1483090782237906"><ele>422.0</ele><time>2026-04-02T05:23:10Z</time></trkpt><trkpt lat="43.09491316385678" lon="1.1484695027911032"><ele>422.25</ele><time>2026-04-02T05:23:11Z</time></trkpt><trkpt lat="43.09486995340274" lon="1.1486275479262065"><ele>422.5</ele><time>2026-04-02T05:23:12Z</time></trkpt><trkpt lat="43.09483227920504" lon="1.1487920085044228"><ele>422.75</ele><time>2026-04-02T05:23:13Z</time></trkpt><trkpt lat="43.09481155340311" lon="1.1489472440684143"><ele>423.0</ele><time>2026-04-02T05:23:14Z</time></trkpt><trkpt lat="43.09479982655479" lon="1.1490965663723545"><ele>423.5</ele><time>2026-04-02T05:23:15Z</time></trkpt><trkpt lat="43.094775141519506" lon="1.1492448625020433"><ele>424.0</ele><time>2026-04-02T05:23:16Z</time></trkpt><trkpt lat="43.0946984655193" lon="1.149358918572516"><ele>424.5</ele><time>2026-04-02T05:23:17Z</time></trkpt><trkpt lat="43.09462391353402" lon="1.1494772780302303"><ele>425.0</ele><time>2026-04-02T05:23:18Z</time></trkpt><trkpt lat="43.09455492405251" lon="1.1496075559547372"><ele>425.0</ele><time>2026-04-02T05:23:19Z</time></trkpt><trkpt lat="43.09448032407972" lon="1.1497323371798254"><ele>425.0</ele><time>2026-04-02T05:23:20Z</time></trkpt><trkpt lat="43.09443733778015" lon="1.1498896341662326"><ele>425.0</ele><time>2026-04-02T05:23:21Z</time></trkpt><trkpt lat="43.0944261591909" lon="1.1500656669705591"><ele>425.0</ele><time>2026-04-02T05:23:22Z</time></trkpt><trkpt lat="43.094442476751496" lon="1.1502450378821292"><ele>426.25</ele><time>2026-04-02T05:23:23Z</time></trkpt><trkpt lat="43.094472234396235" lon="1.150422884804733"><ele>427.5</ele><time>2026-04-02T05:23:24Z</time></trkpt><trkpt lat="43.09449499131647" lon="1.1506025833750446"><ele>428.75</ele><time>2026-04-02T05:23:25Z</time></trkpt><trkpt lat="43.09450220941911" lon="1.150790942625341"><ele>430.0</ele><time>2026-04-02T05:23:26Z</time></trkpt><trkpt lat="43.09449235670616" lon="1.150983553249449"><ele>431.25</ele><time>2026-04-02T05:23:27Z</time></trkpt><trkpt lat="43.09444983115045" lon="1.1511681048924385"><ele>432.5</ele><time>2026-04-02T05:23:28Z</time></trkpt><trkpt lat="43.09442828535555" lon="1.151354668653525"><ele>433.75</ele><time>2026-04-02T05:23:29Z</time></trkpt><trkpt lat="43.09439127127942" lon="1.1515374590459082"><ele>435.0</ele><time>2026-04-02T05:23:30Z</time></trkpt><trkpt lat="43.094362772476764" lon="1.1517230409564208"><ele>435.5</ele><time>2026-04-02T05:23:31Z</time></trkpt><trkpt lat="43.09433631073116" lon="1.1519105926012625"><ele>436.0</ele><time>2026-04-02T05:23:32Z</time></trkpt><trkpt lat="43.0943117128407" lon="1.1521033867227701"><ele>436.5</ele><time>2026-04-02T05:23:33Z</time></trkpt><trkpt lat="43.09428358976591" lon="1.1523013869481302"><ele>437.0</ele><time>2026-04-02T05:23:34Z</time></trkpt><trkpt lat="43.09425216775811" lon="1.1525072170690642"><ele>437.0</ele><time>2026-04-02T05:23:35Z</time></trkpt><trkpt lat="43.09421396844196" lon="1.1527063111565599"><ele>437.0</ele><time>2026-04-02T05:23:36Z</time></trkpt><trkpt lat="43.094170347525136" lon="1.1529052179798798"><ele>437.0</ele><time>2026-04-02T05:23:37Z</time></trkpt><trkpt lat="43.09412704364209" lon="1.1530952763502174"><ele>437.0</ele><time>2026-04-02T05:23:38Z</time></trkpt><trkpt lat="43.09408513558072" lon="1.153281893713754"><ele>435.5</ele><time>2026-04-02T05:23:39Z</time></trkpt><trkpt lat="43.09404495171998" lon="1.1534612161866309"><ele>434.0</ele><time>2026-04-02T05:23:40Z</time></trkpt><trkpt lat="43.094011009568646" lon="1.1536276738233429"><ele>432.5</ele><time>2026-04-02T05:23:41Z</time></trkpt><trkpt lat="43.09398120349025" lon="1.1537917438519514"><ele>431.0</ele><time>2026-04-02T05:23:42Z</time></trkpt><trkpt lat="43.09397298401683" lon="1.1539606308555097"><ele>431.25</ele><time>2026-04-02T05:23:43Z</time></trkpt><trkpt lat="43.094001333480264" lon="1.1541354891262539"><ele>431.5</ele><time>2026-04-02T05:23:44Z</time></trkpt><trkpt lat="43.09405167036745" lon="1.1543081498567616"><ele>431.75</ele><time>2026-04-02T05:23:45Z</time></trkpt><trkpt lat="43.09409133999968" lon="1.1544900962643823"><ele>432.0</ele><time>2026-04-02T05:23:46Z</time></trkpt><trkpt lat="43.0940977585823" lon="1.1546837017414053"><ele>431.66666666666663</ele><time>2026-04-02T05:23:47Z</time></trkpt><trkpt lat="43.094084251074314" lon="1.154886584206254"><ele>431.3333333333333</ele><time>2026-04-02T05:23:48Z</time></trkpt><trkpt lat="43.09403811789187" lon="1.155084343289526"><ele>431.0</ele><time>2026-04-02T05:23:49Z</time></trkpt><trkpt lat="43.09401660153942" lon="1.1552899870112532"><ele>431.0</ele><time>2026-04-02T05:23:50Z</time></trkpt><trkpt lat="43.093977656318195" lon="1.1554904806820525"><ele>431.0</ele><time>2026-04-02T05:23:51Z</time></trkpt><trkpt lat="43.093943348053884" lon="1.155690846799313"><ele>431.0</ele><time>2026-04-02T05:23:52Z</time></trkpt><trkpt lat="43.09391706550926" lon="1.1558799994896514"><ele>431.0</ele><time>2026-04-02T05:23:53Z</time></trkpt><trkpt lat="43.09390150929254" lon="1.1560724274661633"><ele>430.75</ele><time>2026-04-02T05:23:54Z</time></trkpt><trkpt lat="43.09389670051957" lon="1.1562649560166556"><ele>430.5</ele><time>2026-04-02T05:23:55Z</time></trkpt><trkpt lat="43.09390524098562" lon="1.156452114958742"><ele>430.25</ele><time>2026-04-02T05:23:56Z</time></trkpt><trkpt lat="43.09392973720259" lon="1.156636992234199"><ele>430.0</ele><time>2026-04-02T05:23:57Z</time></trkpt><trkpt lat="43.09396818640118" lon="1.156818362099776"><ele>430.75</ele><time>2026-04-02T05:23:58Z</time></trkpt><trkpt lat="43.09400669401738" lon="1.1569988545137726"><ele>431.5</ele><time>2026-04-02T05:23:59Z</time></trkpt><trkpt lat="43.09401109738726" lon="1.1571878714263661"><ele>432.25</ele><time>2026-04-02T05:24:00Z</time></trkpt><trkpt lat="43.09401836252777" lon="1.1573734324689549"><ele>433.0</ele><time>2026-04-02T05:24:01Z</time></trkpt><trkpt lat="43.093954301854446" lon="1.15753935138762"><ele>433.0</ele><time>2026-04-02T05:24:02Z</time></trkpt><trkpt lat="43.09387685292109" lon="1.1576821122691168"><ele>433.0</ele><time>2026-04-02T05:24:03Z</time></trkpt><trkpt lat="43.09378843878944" lon="1.1578313511058496"><ele>433.0</ele><time>2026-04-02T05:24:04Z</time></trkpt><trkpt lat="43.0937095422066" lon="1.1580011296450077"><ele>433.0</ele><time>2026-04-02T05:24:05Z</time></trkpt><trkpt lat="43.093634974190394" lon="1.158174173399277"><ele>435.0</ele><time>2026-04-02T05:24:06Z</time></trkpt><trkpt lat="43.09358378631319" lon="1.1583634902683984"><ele>437.0</ele><time>2026-04-02T05:24:07Z</time></trkpt><trkpt lat="43.09354506257054" lon="1.1585560230659107"><ele>439.0</ele><time>2026-04-02T05:24:08Z</time></trkpt><trkpt lat="43.09350801090023" lon="1.158769713960888"><ele>439.0</ele><time>2026-04-02T05:24:09Z</time></trkpt><trkpt lat="43.093463087011884" lon="1.159004688425465"><ele>439.0</ele><time>2026-04-02T05:24:10Z</time></trkpt><trkpt lat="43.093410719242506" lon="1.159250880903747"><ele>439.0</ele><time>2026-04-02T05:24:11Z</time></trkpt><trkpt lat="43.0933596692589" lon="1.1594917193759084"><ele>439.6666666666667</ele><time>2026-04-02T05:24:12Z</time></trkpt><trkpt lat="43.09331227309872" lon="1.1597311963678811"><ele>440.33333333333337</ele><time>2026-04-02T05:24:13Z</time></trkpt><trkpt lat="43.09326383976464" lon="1.1599733069127378"><ele>441.0</ele><time>2026-04-02T05:24:14Z</time></trkpt><trkpt lat="43.09321640758807" lon="1.160196170367624"><ele>441.0</ele><time>2026-04-02T05:24:15Z</time></trkpt><trkpt lat="43.09317171045517" lon="1.1604014028363292"><ele>441.0</ele><time>2026-04-02T05:24:16Z</time></trkpt><trkpt lat="43.09313329529991" lon="1.160574490573042"><ele>441.0</ele><time>2026-04-02T05:24:17Z</time></trkpt><trkpt lat="43.09310310101209" lon="1.1607231960260858"><ele>441.0</ele><time>2026-04-02T05:24:18Z</time></trkpt><trkpt lat="43.09307736886193" lon="1.1608475426165317"><ele>442.0</ele><time>2026-04-02T05:24:19Z</time></trkpt><trkpt lat="43.09305581485415" lon="1.160943999266472"><ele>443.0</ele><time>2026-04-02T05:24:20Z</time></trkpt><trkpt lat="43.09303429014926" lon="1.1610280835659477"><ele>444.0</ele><time>2026-04-02T05:24:21Z</time></trkpt><trkpt lat="43.09299739921699" lon="1.1611498087889136"><ele>445.0</ele><time>2026-04-02T05:24:23Z</time></trkpt><trkpt lat="43.09296667746524" lon="1.1612353282064403"><ele>446.0</ele><time>2026-04-02T05:25:24Z</time></trkpt><trkpt lat="43.093080522032835" lon="1.1613059795350242"><ele>447.0</ele><time>2026-04-02T05:25:26Z</time></trkpt><trkpt lat="43.09319178511146" lon="1.1613090590557356"><ele>448.8</ele><time>2026-04-02T05:25:27Z</time></trkpt><trkpt lat="43.09327321981024" lon="1.1613449949565697"><ele>450.6</ele><time>2026-04-02T05:25:28Z</time></trkpt><trkpt lat="43.09337495786664" lon="1.1613900057221025"><ele>452.40000000000003</ele><time>2026-04-02T05:25:29Z</time></trkpt><trkpt lat="43.09349335121711" lon="1.161438649713561"><ele>454.20000000000005</ele><time>2026-04-02T05:25:30Z</time></trkpt><trkpt lat="43.09360204922318" lon="1.1614649803062906"><ele>456.0</ele><time>2026-04-02T05:25:31Z</time></trkpt><trkpt lat="43.0937283167822" lon="1.161498021231938"><ele>456.0</ele><time>2026-04-02T05:25:32Z</time></trkpt><trkpt lat="43.09387048426957" lon="1.1614795029726226"><ele>456.0</ele><time>2026-04-02T05:25:33Z</time></trkpt><trkpt lat="43.094004718511755" lon="1.1614215500438454"><ele>456.0</ele><time>2026-04-02T05:25:34Z</time></trkpt><trkpt lat="43.0941319257408" lon="1.161383738518183"><ele>456.0</ele><time>2026-04-02T05:25:35Z</time></trkpt><trkpt lat="43.09425763234661" lon="1.1613444577907512"><ele>456.5</ele><time>2026-04-02T05:25:36Z</time></trkpt><trkpt lat="43.09438621644638" lon="1.161311216242523"><ele>457.0</ele><time>2026-04-02T05:25:37Z</time></trkpt><trkpt lat="43.094521975039015" lon="1.1613111491688748"><ele>457.5</ele><time>2026-04-02T05:25:38Z</time></trkpt><trkpt lat="43.0946612649916" lon="1.1613501815380292"><ele>458.0</ele><time>2026-04-02T05:25:39Z</time></trkpt><trkpt lat="43.09480389512387" lon="1.1614117621551368"><ele>457.3333333333333</ele><time>2026-04-02T05:25:40Z</time></trkpt><trkpt lat="43.09494841430952" lon="1.1614846865906885"><ele>456.66666666666663</ele><time>2026-04-02T05:25:41Z</time></trkpt><trkpt lat="43.09509739377941" lon="1.1615594273641872"><ele>456.0</ele><time>2026-04-02T05:25:42Z</time></trkpt><trkpt lat="43.0952458450018" lon="1.1616355353405285"><ele>452.66666666666663</ele><time>2026-04-02T05:25:43Z</time></trkpt><trkpt lat="43.09539356743091" lon="1.1617100464003283"><ele>449.3333333333333</ele><time>2026-04-02T05:25:44Z</time></trkpt><trkpt lat="43.09553590358512" lon="1.1617805716020964"><ele>446.0</ele><time>2026-04-02T05:25:45Z</time></trkpt><trkpt lat="43.09568064432618" lon="1.1618495033586982"><ele>447.66666666666663</ele><time>2026-04-02T05:25:46Z</time></trkpt><trkpt lat="43.09582825395285" lon="1.161918165995157"><ele>449.33333333333337</ele><time>2026-04-02T05:25:47Z</time></trkpt><trkpt lat="43.09597662019336" lon="1.161994002667033"><ele>451.0</ele><time>2026-04-02T05:25:48Z</time></trkpt><trkpt lat="43.09611946536585" lon="1.1620715217195092"><ele>451.0</ele><time>2026-04-02T05:25:49Z</time></trkpt><trkpt lat="43.09625428748495" lon="1.1621291625391315"><ele>451.0</ele><time>2026-04-02T05:25:50Z</time></trkpt><trkpt lat="43.09638628752609" lon="1.1621508932405913"><ele>451.0</ele><time>2026-04-02T05:25:51Z</time></trkpt><trkpt lat="43.096521311242036" lon="1.1621382329860543"><ele>451.0</ele><time>2026-04-02T05:25:52Z</time></trkpt><trkpt lat="43.09666659919482" lon="1.16211828983692"><ele>452.5</ele><time>2026-04-02T05:25:53Z</time></trkpt><trkpt lat="43.09681166032612" lon="1.1621239345448542"><ele>454.0</ele><time>2026-04-02T05:25:54Z</time></trkpt><trkpt lat="43.09695331235496" lon="1.1621725808609602"><ele>455.5</ele><time>2026-04-02T05:25:55Z</time></trkpt><trkpt lat="43.097088011691014" lon="1.1622539064196002"><ele>457.0</ele><time>2026-04-02T05:25:56Z</time></trkpt><trkpt lat="43.09721004403637" lon="1.1623649800059335"><ele>452.33333333333337</ele><time>2026-04-02T05:25:57Z</time></trkpt><trkpt lat="43.09732249344709" lon="1.1625089612701465"><ele>447.66666666666663</ele><time>2026-04-02T05:25:58Z</time></trkpt><trkpt lat="43.0974217530649" lon="1.162669766566031"><ele>443.0</ele><time>2026-04-02T05:25:59Z</time></trkpt><trkpt lat="43.09750732205904" lon="1.1628445670094"><ele>443.0</ele><time>2026-04-02T05:26:00Z</time></trkpt><trkpt lat="43.09756746808411" lon="1.1630402499147088"><ele>443.0</ele><time>2026-04-02T05:26:01Z</time></trkpt><trkpt lat="43.09761099381808" lon="1.163247842034481"><ele>443.0</ele><time>2026-04-02T05:26:02Z</time></trkpt><trkpt lat="43.09765886739726" lon="1.163460871676624"><ele>440.0</ele><time>2026-04-02T05:26:03Z</time></trkpt><trkpt lat="43.097713310314056" lon="1.1636749859699231"><ele>437.0</ele><time>2026-04-02T05:26:04Z</time></trkpt><trkpt lat="43.09776461726506" lon="1.163883045500727"><ele>434.0</ele><time>2026-04-02T05:26:05Z</time></trkpt><trkpt lat="43.09780423688788" lon="1.1640893078145116"><ele>431.3333333333333</ele><time>2026-04-02T05:26:06Z</time></trkpt><trkpt lat="43.097835793431535" lon="1.1642930967108809"><ele>428.66666666666663</ele><time>2026-04-02T05:26:07Z</time></trkpt><trkpt lat="43.09785463964865" lon="1.164502409916671"><ele>426.0</ele><time>2026-04-02T05:26:08Z</time></trkpt><trkpt lat="43.09786352374958" lon="1.1647147660671981"><ele>424.66666666666663</ele><time>2026-04-02T05:26:09Z</time></trkpt><trkpt lat="43.09786261940795" lon="1.1649301527919524"><ele>423.3333333333333</ele><time>2026-04-02T05:26:10Z</time></trkpt><trkpt lat="43.09784638090783" lon="1.1651417786834708"><ele>422.0</ele><time>2026-04-02T05:26:11Z</time></trkpt><trkpt lat="43.09781993355744" lon="1.1653542744912613"><ele>422.0</ele><time>2026-04-02T05:26:12Z</time></trkpt><trkpt lat="43.09778794831645" lon="1.1655640263164022"><ele>422.0</ele><time>2026-04-02T05:26:13Z</time></trkpt><trkpt lat="43.09775538316798" lon="1.1657692731691545"><ele>422.0</ele><time>2026-04-02T05:26:14Z</time></trkpt><trkpt lat="43.09770807837068" lon="1.1659702849164644"><ele>420.5</ele><time>2026-04-02T05:26:15Z</time></trkpt><trkpt lat="43.09769444395938" lon="1.1661754257349826"><ele>419.0</ele><time>2026-04-02T05:26:16Z</time></trkpt><trkpt lat="43.09766276633801" lon="1.1663733176629092"><ele>417.5</ele><time>2026-04-02T05:26:17Z</time></trkpt><trkpt lat="43.09763759395147" lon="1.1665724615643545"><ele>416.0</ele><time>2026-04-02T05:26:18Z</time></trkpt><trkpt lat="43.09762297302009" lon="1.1667594893695963"><ele>415.5</ele><time>2026-04-02T05:26:19Z</time></trkpt><trkpt lat="43.097620323761646" lon="1.1669355721724526"><ele>415.0</ele><time>2026-04-02T05:26:20Z</time></trkpt><trkpt lat="43.09763517237555" lon="1.1671049009977188"><ele>414.5</ele><time>2026-04-02T05:26:21Z</time></trkpt><trkpt lat="43.09767577279218" lon="1.167254314245465"><ele>414.0</ele><time>2026-04-02T05:26:22Z</time></trkpt><trkpt lat="43.09774254991453" lon="1.167377644971831"><ele>413.25</ele><time>2026-04-02T05:26:23Z</time></trkpt><trkpt lat="43.09783205832251" lon="1.1674777094024167"><ele>412.5</ele><time>2026-04-02T05:26:24Z</time></trkpt><trkpt lat="43.09794875537717" lon="1.1675505278683276"><ele>411.75</ele><time>2026-04-02T05:26:25Z</time></trkpt><trkpt lat="43.09809024101383" lon="1.1675812014555544"><ele>411.0</ele><time>2026-04-02T05:26:26Z</time></trkpt><trkpt lat="43.098247266258234" lon="1.1676007019260959"><ele>410.66666666666663</ele><time>2026-04-02T05:26:27Z</time></trkpt><trkpt lat="43.09841602648049" lon="1.1675950629687062"><ele>410.3333333333333</ele><time>2026-04-02T05:26:28Z</time></trkpt><trkpt lat="43.09856026148285" lon="1.167590185224866"><ele>410.0</ele><time>2026-04-02T05:26:29Z</time></trkpt><trkpt lat="43.09870250971226" lon="1.1675671455014065"><ele>410.0</ele><time>2026-04-02T05:26:30Z</time></trkpt><trkpt lat="43.098833076465645" lon="1.167584767393787"><ele>410.0</ele><time>2026-04-02T05:26:31Z</time></trkpt><trkpt lat="43.09897321423284" lon="1.1676226437584185"><ele>410.0</ele><time>2026-04-02T05:26:32Z</time></trkpt><trkpt lat="43.099131165117825" lon="1.1676874549929104"><ele>410.0</ele><time>2026-04-02T05:26:33Z</time></trkpt><trkpt lat="43.09928494415829" lon="1.1677761912733229"><ele>409.0</ele><time>2026-04-02T05:26:34Z</time></trkpt><trkpt lat="43.09944363983815" lon="1.167880733488099"><ele>408.0</ele><time>2026-04-02T05:26:35Z</time></trkpt><trkpt lat="43.099598638255344" lon="1.16798533567813"><ele>407.0</ele><time>2026-04-02T05:26:36Z</time></trkpt><trkpt lat="43.099751381839276" lon="1.1680903150962139"><ele>408.0</ele><time>2026-04-02T05:26:37Z</time></trkpt><trkpt lat="43.099904516361036" lon="1.1681947299841886"><ele>409.0</ele><time>2026-04-02T05:26:38Z</time></trkpt><trkpt lat="43.10005498352403" lon="1.168295353296965"><ele>410.0</ele><time>2026-04-02T05:26:39Z</time></trkpt><trkpt lat="43.100207735268675" lon="1.168392830304912"><ele>410.0</ele><time>2026-04-02T05:26:40Z</time></trkpt><trkpt lat="43.10035885916315" lon="1.1684893487060566"><ele>410.0</ele><time>2026-04-02T05:26:41Z</time></trkpt><trkpt lat="43.10050620021353" lon="1.1685838266572133"><ele>410.0</ele><time>2026-04-02T05:26:42Z</time></trkpt><trkpt lat="43.100656248130065" lon="1.1686792919190567"><ele>409.0</ele><time>2026-04-02T05:26:43Z</time></trkpt><trkpt lat="43.10080169637497" lon="1.1687692753060175"><ele>408.0</ele><time>2026-04-02T05:26:44Z</time></trkpt><trkpt lat="43.10094594879864" lon="1.1688591949152238"><ele>407.0</ele><time>2026-04-02T05:26:45Z</time></trkpt><trkpt lat="43.10109168652596" lon="1.1689492383197715"><ele>409.66666666666663</ele><time>2026-04-02T05:26:46Z</time></trkpt><trkpt lat="43.10122924849859" lon="1.1690513611877573"><ele>412.33333333333337</ele><time>2026-04-02T05:26:47Z</time></trkpt><trkpt lat="43.1013667949363" lon="1.169167566365916"><ele>415.0</ele><time>2026-04-02T05:26:48Z</time></trkpt><trkpt lat="43.10150278218472" lon="1.1692895042498819"><ele>414.33333333333337</ele><time>2026-04-02T05:26:49Z</time></trkpt><trkpt lat="43.101640482770904" lon="1.1694185769458953"><ele>413.66666666666663</ele><time>2026-04-02T05:26:50Z</time></trkpt><trkpt lat="43.10177816476922" lon="1.1695509918788143"><ele>413.0</ele><time>2026-04-02T05:26:51Z</time></trkpt><trkpt lat="43.10191214997947" lon="1.169682875009231"><ele>413.0</ele><time>2026-04-02T05:26:52Z</time></trkpt><trkpt lat="43.10204294959487" lon="1.1698137319244988"><ele>413.0</ele><time>2026-04-02T05:26:53Z</time></trkpt><trkpt lat="43.10217326267832" lon="1.1699456930787333"><ele>413.0</ele><time>2026-04-02T05:26:54Z</time></trkpt><trkpt lat="43.10230503568994" lon="1.1700743253959032"><ele>414.5</ele><time>2026-04-02T05:26:55Z</time></trkpt><trkpt lat="43.10243013409487" lon="1.1701996396438346"><ele>416.0</ele><time>2026-04-02T05:26:56Z</time></trkpt><trkpt lat="43.10254347733197" lon="1.170328018982996"><ele>417.5</ele><time>2026-04-02T05:26:57Z</time></trkpt><trkpt lat="43.10264485734227" lon="1.1704649685211397"><ele>419.0</ele><time>2026-04-02T05:26:58Z</time></trkpt><trkpt lat="43.10273287412276" lon="1.1706157726053203"><ele>418.75</ele><time>2026-04-02T05:26:59Z</time></trkpt><trkpt lat="43.102804032375744" lon="1.1707840042781557"><ele>418.5</ele><time>2026-04-02T05:27:00Z</time></trkpt><trkpt lat="43.102852472751756" lon="1.1709761067924347"><ele>418.25</ele><time>2026-04-02T05:27:01Z</time></trkpt><trkpt lat="43.10286102297037" lon="1.1711787876315936"><ele>418.0</ele><time>2026-04-02T05:27:02Z</time></trkpt><trkpt lat="43.10284048456822" lon="1.171399080456458"><ele>418.0</ele><time>2026-04-02T05:27:03Z</time></trkpt><trkpt lat="43.102808948084785" lon="1.1716271270750718"><ele>418.0</ele><time>2026-04-02T05:27:04Z</time></trkpt><trkpt lat="43.102780539264266" lon="1.1718649257487366"><ele>418.0</ele><time>2026-04-02T05:27:05Z</time></trkpt><trkpt lat="43.10275953708673" lon="1.1720959682170244"><ele>418.0</ele><time>2026-04-02T05:27:06Z</time></trkpt><trkpt lat="43.102732217380414" lon="1.1723213930405307"><ele>418.0</ele><time>2026-04-02T05:27:07Z</time></trkpt><trkpt lat="43.10269276590379" lon="1.172542827978714"><ele>418.0</ele><time>2026-04-02T05:27:08Z</time></trkpt><trkpt lat="43.10264587339799" lon="1.172789482679137"><ele>418.33333333333337</ele><time>2026-04-02T05:27:09Z</time></trkpt><trkpt lat="43.10259173070083" lon="1.1730155771139943"><ele>418.66666666666663</ele><time>2026-04-02T05:27:10Z</time></trkpt><trkpt lat="43.10252886410215" lon="1.1732374371765442"><ele>419.0</ele><time>2026-04-02T05:27:11Z</time></trkpt><trkpt lat="43.10245734127562" lon="1.173453176267749"><ele>419.66666666666663</ele><time>2026-04-02T05:27:12Z</time></trkpt><trkpt lat="43.10237679252067" lon="1.173662400043638"><ele>420.33333333333337</ele><time>2026-04-02T05:27:13Z</time></trkpt><trkpt lat="43.10229041338942" lon="1.1738582617745352"><ele>421.0</ele><time>2026-04-02T05:27:14Z</time></trkpt><trkpt lat="43.10220977282486" lon="1.1740521132443498"><ele>421.0</ele><time>2026-04-02T05:27:15Z</time></trkpt><trkpt lat="43.102131710897176" lon="1.174247865797902"><ele>421.0</ele><time>2026-04-02T05:27:16Z</time></trkpt><trkpt lat="43.10205583807142" lon="1.1744447496801702"><ele>421.0</ele><time>2026-04-02T05:27:17Z</time></trkpt><trkpt lat="43.10198016136532" lon="1.1746363659599752"><ele>421.0</ele><time>2026-04-02T05:27:18Z</time></trkpt><trkpt lat="43.101902320201546" lon="1.174824632534032"><ele>421.0</ele><time>2026-04-02T05:27:19Z</time></trkpt><trkpt lat="43.101824589060925" lon="1.1750043297244401"><ele>421.0</ele><time>2026-04-02T05:27:20Z</time></trkpt><trkpt lat="43.10175264204517" lon="1.17518539899784"><ele>421.75</ele><time>2026-04-02T05:27:21Z</time></trkpt><trkpt lat="43.10168576643341" lon="1.175356768563011"><ele>422.5</ele><time>2026-04-02T05:27:22Z</time></trkpt><trkpt lat="43.1016215315235" lon="1.1755106756592435"><ele>423.25</ele><time>2026-04-02T05:27:23Z</time></trkpt><trkpt lat="43.10156222617283" lon="1.1756454982328421"><ele>424.0</ele><time>2026-04-02T05:27:24Z</time></trkpt><trkpt lat="43.101510414465125" lon="1.1757617978364812"><ele>424.0</ele><time>2026-04-02T05:27:25Z</time></trkpt><trkpt lat="43.101499866855924" lon="1.1758798454454138"><ele>424.0</ele><time>2026-04-02T05:27:26Z</time></trkpt><trkpt lat="43.10152340259847" lon="1.1759957528927087"><ele>424.0</ele><time>2026-04-02T05:27:27Z</time></trkpt><trkpt lat="43.10160067171949" lon="1.1760680555594631"><ele>424.0</ele><time>2026-04-02T05:27:28Z</time></trkpt><trkpt lat="43.101688979397515" lon="1.1760792832295306"><ele>424.0</ele><time>2026-04-02T05:27:29Z</time></trkpt><trkpt lat="43.10178945422762" lon="1.1760203761382035"><ele>425.0</ele><time>2026-04-02T05:27:30Z</time></trkpt><trkpt lat="43.10189256290231" lon="1.1759244582225503"><ele>426.0</ele><time>2026-04-02T05:27:31Z</time></trkpt><trkpt lat="43.10199080600323" lon="1.1758345744933307"><ele>427.0</ele><time>2026-04-02T05:27:32Z</time></trkpt><trkpt lat="43.10210499991028" lon="1.1757365711244827"><ele>428.0</ele><time>2026-04-02T05:27:33Z</time></trkpt><trkpt lat="43.10223458358356" lon="1.1757143753791868"><ele>428.0</ele><time>2026-04-02T05:27:34Z</time></trkpt><trkpt lat="43.10236976626988" lon="1.1757129047652117"><ele>428.0</ele><time>2026-04-02T05:27:35Z</time></trkpt><trkpt lat="43.10251563408496" lon="1.1757431091598054"><ele>428.0</ele><time>2026-04-02T05:27:36Z</time></trkpt><trkpt lat="43.102661032767486" lon="1.1757485894915374"><ele>428.0</ele><time>2026-04-02T05:27:37Z</time></trkpt><trkpt lat="43.102796083794" lon="1.1757784557036568"><ele>428.0</ele><time>2026-04-02T05:27:38Z</time></trkpt><trkpt lat="43.10293823879978" lon="1.1757501521281453"><ele>428.0</ele><time>2026-04-02T05:27:39Z</time></trkpt><trkpt lat="43.10307954663341" lon="1.175682400382735"><ele>428.0</ele><time>2026-04-02T05:27:40Z</time></trkpt><trkpt lat="43.103216007548156" lon="1.1755836711533527"><ele>428.0</ele><time>2026-04-02T05:27:41Z</time></trkpt><trkpt lat="43.10334563337505" lon="1.1754394332667355"><ele>428.0</ele><time>2026-04-02T05:27:42Z</time></trkpt><trkpt lat="43.10346220319607" lon="1.1752835533923587"><ele>428.0</ele><time>2026-04-02T05:27:43Z</time></trkpt><trkpt lat="43.10357985513834" lon="1.175120577353704"><ele>428.0</ele><time>2026-04-02T05:27:44Z</time></trkpt><trkpt lat="43.10369360742099" lon="1.1749638701711766"><ele>429.25</ele><time>2026-04-02T05:27:45Z</time></trkpt><trkpt lat="43.103804900357524" lon="1.1748143130913433"><ele>430.5</ele><time>2026-04-02T05:27:46Z</time></trkpt><trkpt lat="43.10392326302666" lon="1.1746902089320557"><ele>431.75</ele><time>2026-04-02T05:27:47Z</time></trkpt><trkpt lat="43.104015892221774" lon="1.1745585619486634"><ele>433.0</ele><time>2026-04-02T05:27:48Z</time></trkpt><trkpt lat="43.10413010785012" lon="1.1744782459402658"><ele>430.0</ele><time>2026-04-02T05:27:49Z</time></trkpt><trkpt lat="43.10424427150125" lon="1.1744161704759337"><ele>427.0</ele><time>2026-04-02T05:27:50Z</time></trkpt><trkpt lat="43.10435549238796" lon="1.1743667591500133"><ele>424.0</ele><time>2026-04-02T05:27:51Z</time></trkpt><trkpt lat="43.10447199541251" lon="1.174358786947257"><ele>421.0</ele><time>2026-04-02T05:27:52Z</time></trkpt><trkpt lat="43.104593755977845" lon="1.1743382314663477"><ele>421.0</ele><time>2026-04-02T05:27:53Z</time></trkpt><trkpt lat="43.10471606091615" lon="1.1743779346984058"><ele>421.0</ele><time>2026-04-02T05:27:54Z</time></trkpt><trkpt lat="43.10482461412325" lon="1.1744535427876412"><ele>421.0</ele><time>2026-04-02T05:27:55Z</time></trkpt><trkpt lat="43.10493990878755" lon="1.1745750415035237"><ele>421.0</ele><time>2026-04-02T05:27:56Z</time></trkpt><trkpt lat="43.105058946817955" lon="1.1747056503661484"><ele>420.33333333333337</ele><time>2026-04-02T05:27:57Z</time></trkpt><trkpt lat="43.10518900871306" lon="1.174837863579508"><ele>419.66666666666663</ele><time>2026-04-02T05:27:58Z</time></trkpt><trkpt lat="43.105299942902235" lon="1.1750183735245907"><ele>419.0</ele><time>2026-04-02T05:27:59Z</time></trkpt><trkpt lat="43.10539692655346" lon="1.1752056506285957"><ele>413.3333333333333</ele><time>2026-04-02T05:28:00Z</time></trkpt><trkpt lat="43.10546852643048" lon="1.175401768104852"><ele>407.66666666666663</ele><time>2026-04-02T05:28:01Z</time></trkpt><trkpt lat="43.10551739648221" lon="1.175608898071526"><ele>402.0</ele><time>2026-04-02T05:28:02Z</time></trkpt><trkpt lat="43.10552623691022" lon="1.1758204628736417"><ele>400.0</ele><time>2026-04-02T05:28:03Z</time></trkpt><trkpt lat="43.10553527734234" lon="1.17603313029122"><ele>398.0</ele><time>2026-04-02T05:28:04Z</time></trkpt><trkpt lat="43.10554470027817" lon="1.1762628156745558"><ele>396.0</ele><time>2026-04-02T05:28:05Z</time></trkpt><trkpt lat="43.10554351730065" lon="1.1764975218999685"><ele>394.75</ele><time>2026-04-02T05:28:06Z</time></trkpt><trkpt lat="43.10554676779807" lon="1.1767108465823075"><ele>393.5</ele><time>2026-04-02T05:28:07Z</time></trkpt><trkpt lat="43.10555448868383" lon="1.1769024361946607"><ele>392.25</ele><time>2026-04-02T05:28:08Z</time></trkpt><trkpt lat="43.10557417530896" lon="1.1770559507457854"><ele>391.0</ele><time>2026-04-02T05:28:09Z</time></trkpt><trkpt lat="43.10562168198574" lon="1.1771700295053455"><ele>391.0</ele><time>2026-04-02T05:28:10Z</time></trkpt><trkpt lat="43.10569690378689" lon="1.1772605312929718"><ele>391.0</ele><time>2026-04-02T05:28:11Z</time></trkpt><trkpt lat="43.10579369766332" lon="1.1773080917944043"><ele>391.0</ele><time>2026-04-02T05:28:12Z</time></trkpt><trkpt lat="43.105899572539094" lon="1.1773021717292609"><ele>391.0</ele><time>2026-04-02T05:28:13Z</time></trkpt><trkpt lat="43.10601188053608" lon="1.1772496134517763"><ele>391.0</ele><time>2026-04-02T05:28:14Z</time></trkpt><trkpt lat="43.10613600237238" lon="1.1771588742582266"><ele>390.25</ele><time>2026-04-02T05:28:15Z</time></trkpt><trkpt lat="43.1062567743657" lon="1.1770590282102888"><ele>389.5</ele><time>2026-04-02T05:28:16Z</time></trkpt><trkpt lat="43.10638004585283" lon="1.1769671647042907"><ele>388.75</ele><time>2026-04-02T05:28:17Z</time></trkpt><trkpt lat="43.106490342338574" lon="1.176879759802435"><ele>388.0</ele><time>2026-04-02T05:28:18Z</time></trkpt><trkpt lat="43.106584234117804" lon="1.1767754035674383"><ele>388.0</ele><time>2026-04-02T05:28:19Z</time></trkpt><trkpt lat="43.10666513964096" lon="1.1766427383450526"><ele>388.0</ele><time>2026-04-02T05:28:20Z</time></trkpt><trkpt lat="43.106726041080385" lon="1.1764670136339386"><ele>388.0</ele><time>2026-04-02T05:28:21Z</time></trkpt><trkpt lat="43.106780967967524" lon="1.1762830662932153"><ele>388.0</ele><time>2026-04-02T05:28:22Z</time></trkpt><trkpt lat="43.10686309831192" lon="1.1761236363603147"><ele>390.25</ele><time>2026-04-02T05:28:23Z</time></trkpt><trkpt lat="43.106938414562286" lon="1.1759747940488747"><ele>392.5</ele><time>2026-04-02T05:28:24Z</time></trkpt><trkpt lat="43.107044382222696" lon="1.1758831901934539"><ele>394.75</ele><time>2026-04-02T05:28:25Z</time></trkpt><trkpt lat="43.107150968657045" lon="1.1758287928898448"><ele>397.0</ele><time>2026-04-02T05:28:26Z</time></trkpt><trkpt lat="43.10727795288519" lon="1.1757905802388193"><ele>388.6666666666667</ele><time>2026-04-02T05:28:27Z</time></trkpt><trkpt lat="43.10742381663487" lon="1.1757633445488447"><ele>380.33333333333337</ele><time>2026-04-02T05:28:28Z</time></trkpt><trkpt lat="43.107589290192735" lon="1.1757413806672965"><ele>372.0</ele><time>2026-04-02T05:28:29Z</time></trkpt><trkpt lat="43.107762875139436" lon="1.1757088151862414"><ele>372.0</ele><time>2026-04-02T05:28:30Z</time></trkpt><trkpt lat="43.10793937798506" lon="1.1756927246202624"><ele>372.0</ele><time>2026-04-02T05:28:31Z</time></trkpt><trkpt lat="43.10811737118106" lon="1.175661694591017"><ele>372.0</ele><time>2026-04-02T05:28:32Z</time></trkpt><trkpt lat="43.108289030293065" lon="1.1756346700481703"><ele>369.3333333333333</ele><time>2026-04-02T05:28:33Z</time></trkpt><trkpt lat="43.10845626624936" lon="1.175603134088793"><ele>366.66666666666663</ele><time>2026-04-02T05:28:34Z</time></trkpt><trkpt lat="43.10862335828798" lon="1.1755593398220425"><ele>364.0</ele><time>2026-04-02T05:28:35Z</time></trkpt><trkpt lat="43.108792873723765" lon="1.1755088018394846"><ele>364.0</ele><time>2026-04-02T05:28:36Z</time></trkpt><trkpt lat="43.108967841408266" lon="1.1754515766992955"><ele>364.0</ele><time>2026-04-02T05:28:37Z</time></trkpt><trkpt lat="43.10914078692715" lon="1.175392497269455"><ele>364.0</ele><time>2026-04-02T05:28:38Z</time></trkpt><trkpt lat="43.10931936608408" lon="1.1753322685674432"><ele>361.0</ele><time>2026-04-02T05:28:39Z</time></trkpt><trkpt lat="43.109495045765" lon="1.1752673790037125"><ele>358.0</ele><time>2026-04-02T05:28:40Z</time></trkpt><trkpt lat="43.10967117353019" lon="1.175208175782172"><ele>355.0</ele><time>2026-04-02T05:28:41Z</time></trkpt><trkpt lat="43.10984828375181" lon="1.1751598983730638"><ele>350.66666666666663</ele><time>2026-04-02T05:28:42Z</time></trkpt><trkpt lat="43.110027041822704" lon="1.1750985472369089"><ele>346.3333333333333</ele><time>2026-04-02T05:28:43Z</time></trkpt><trkpt lat="43.11020355991063" lon="1.175033075181951"><ele>342.0</ele><time>2026-04-02T05:28:44Z</time></trkpt><trkpt lat="43.11038272878855" lon="1.174975172246175"><ele>342.0</ele><time>2026-04-02T05:28:45Z</time></trkpt><trkpt lat="43.11056254222701" lon="1.1749198033181552"><ele>342.0</ele><time>2026-04-02T05:28:46Z</time></trkpt><trkpt lat="43.110743065686385" lon="1.174859310019451"><ele>342.0</ele><time>2026-04-02T05:28:47Z</time></trkpt><trkpt lat="43.11092301125468" lon="1.174801394840547"><ele>343.0</ele><time>2026-04-02T05:28:48Z</time></trkpt><trkpt lat="43.11110191136473" lon="1.1747470981309038"><ele>344.0</ele><time>2026-04-02T05:28:49Z</time></trkpt><trkpt lat="43.11127879894251" lon="1.1746925766356602"><ele>345.0</ele><time>2026-04-02T05:28:50Z</time></trkpt><trkpt lat="43.11145265960341" lon="1.1746340940098612"><ele>340.6666666666667</ele><time>2026-04-02T05:28:51Z</time></trkpt><trkpt lat="43.11162318936042" lon="1.1745820491862116"><ele>336.33333333333337</ele><time>2026-04-02T05:28:52Z</time></trkpt><trkpt lat="43.11178822085036" lon="1.1745252333725376"><ele>332.0</ele><time>2026-04-02T05:28:53Z</time></trkpt><trkpt lat="43.11194923773625" lon="1.1744737494336537"><ele>332.0</ele><time>2026-04-02T05:28:54Z</time></trkpt><trkpt lat="43.112089747118745" lon="1.1744357700517603"><ele>332.0</ele><time>2026-04-02T05:28:55Z</time></trkpt><trkpt lat="43.112232208485636" lon="1.1744071784238237"><ele>332.0</ele><time>2026-04-02T05:28:56Z</time></trkpt><trkpt lat="43.112360728720596" lon="1.1743991981298152"><ele>332.0</ele><time>2026-04-02T05:28:57Z</time></trkpt><trkpt lat="43.11248283899669" lon="1.1744353604593194"><ele>331.75</ele><time>2026-04-02T05:28:58Z</time></trkpt><trkpt lat="43.11258371834511" lon="1.1745210859378266"><ele>331.5</ele><time>2026-04-02T05:28:59Z</time></trkpt><trkpt lat="43.112671188405415" lon="1.1746427199845568"><ele>331.25</ele><time>2026-04-02T05:29:00Z</time></trkpt><trkpt lat="43.11275984790196" lon="1.1748014811963952"><ele>331.0</ele><time>2026-04-02T05:29:01Z</time></trkpt><trkpt lat="43.11285155799382" lon="1.1749802204730337"><ele>331.0</ele><time>2026-04-02T05:29:02Z</time></trkpt><trkpt lat="43.11294696650857" lon="1.1751745693563602"><ele>331.0</ele><time>2026-04-02T05:29:03Z</time></trkpt><trkpt lat="43.11304711716839" lon="1.1753646870244419"><ele>331.0</ele><time>2026-04-02T05:29:04Z</time></trkpt><trkpt lat="43.11314898958667" lon="1.1755559650850862"><ele>329.66666666666663</ele><time>2026-04-02T05:29:05Z</time></trkpt><trkpt lat="43.11324977418374" lon="1.1757439939343715"><ele>328.3333333333333</ele><time>2026-04-02T05:29:06Z</time></trkpt><trkpt lat="43.11335493949197" lon="1.1759183958466322"><ele>327.0</ele><time>2026-04-02T05:29:07Z</time></trkpt><trkpt lat="43.11347762197415" lon="1.1760695847525287"><ele>327.0</ele><time>2026-04-02T05:29:08Z</time></trkpt><trkpt lat="43.113624515536074" lon="1.1762061061039004"><ele>327.0</ele><time>2026-04-02T05:29:09Z</time></trkpt><trkpt lat="43.11378535590799" lon="1.1763429636269942"><ele>327.0</ele><time>2026-04-02T05:29:10Z</time></trkpt><trkpt lat="43.113941974779074" lon="1.1764756116322652"><ele>328.3333333333333</ele><time>2026-04-02T05:29:11Z</time></trkpt><trkpt lat="43.1141009684503" lon="1.1766061718333705"><ele>329.66666666666663</ele><time>2026-04-02T05:29:12Z</time></trkpt><trkpt lat="43.11427039571148" lon="1.176749151416339"><ele>331.0</ele><time>2026-04-02T05:29:13Z</time></trkpt><trkpt lat="43.11444853609034" lon="1.1769080484005157"><ele>331.0</ele><time>2026-04-02T05:29:14Z</time></trkpt><trkpt lat="43.11461295749153" lon="1.177049673114616"><ele>331.0</ele><time>2026-04-02T05:29:15Z</time></trkpt><trkpt lat="43.11476902424805" lon="1.1771794411325809"><ele>331.0</ele><time>2026-04-02T05:29:16Z</time></trkpt><trkpt lat="43.11491630630615" lon="1.1773035080492684"><ele>333.3333333333333</ele><time>2026-04-02T05:29:17Z</time></trkpt><trkpt lat="43.11505576748743" lon="1.1774250007107006"><ele>335.6666666666667</ele><time>2026-04-02T05:29:18Z</time></trkpt><trkpt lat="43.11519479540146" lon="1.1775440861113944"><ele>338.0</ele><time>2026-04-02T05:29:19Z</time></trkpt><trkpt lat="43.11533593732927" lon="1.177664151915327"><ele>338.0</ele><time>2026-04-02T05:29:20Z</time></trkpt><trkpt lat="43.115472520155535" lon="1.1777818880987718"><ele>338.0</ele><time>2026-04-02T05:29:21Z</time></trkpt><trkpt lat="43.11560151301196" lon="1.1778949898010735"><ele>338.0</ele><time>2026-04-02T05:29:22Z</time></trkpt><trkpt lat="43.11571756522522" lon="1.1779884846418271"><ele>338.0</ele><time>2026-04-02T05:29:23Z</time></trkpt><trkpt lat="43.115830947919214" lon="1.1780392841331684"><ele>337.5</ele><time>2026-04-02T05:29:24Z</time></trkpt><trkpt lat="43.11594418635807" lon="1.178031956312209"><ele>337.0</ele><time>2026-04-02T05:29:25Z</time></trkpt><trkpt lat="43.11605577462195" lon="1.1780211833677938"><ele>336.5</ele><time>2026-04-02T05:29:26Z</time></trkpt><trkpt lat="43.11617847267826" lon="1.1779462138958556"><ele>336.0</ele><time>2026-04-02T05:29:27Z</time></trkpt><trkpt lat="43.11628997234135" lon="1.1778732888730579"><ele>336.0</ele><time>2026-04-02T05:29:28Z</time></trkpt><trkpt lat="43.11638597197464" lon="1.1778007036825704"><ele>336.0</ele><time>2026-04-02T05:29:29Z</time></trkpt><trkpt lat="43.11649027436145" lon="1.1777554355172262"><ele>336.0</ele><time>2026-04-02T05:29:30Z</time></trkpt><trkpt lat="43.1165877053494" lon="1.177750398114829"><ele>336.0</ele><time>2026-04-02T05:29:31Z</time></trkpt><trkpt lat="43.11667973058614" lon="1.1777205155263464"><ele>336.0</ele><time>2026-04-02T05:29:32Z</time></trkpt><trkpt lat="43.11677051903455" lon="1.1777858149946043"><ele>336.4</ele><time>2026-04-02T05:29:33Z</time></trkpt><trkpt lat="43.11683853622427" lon="1.1778647079559823"><ele>336.8</ele><time>2026-04-02T05:29:34Z</time></trkpt><trkpt lat="43.116863298670744" lon="1.1779866052316819"><ele>337.2</ele><time>2026-04-02T05:29:35Z</time></trkpt><trkpt lat="43.11686576412115" lon="1.1781201103118308"><ele>337.59999999999997</ele><time>2026-04-02T05:29:36Z</time></trkpt><trkpt lat="43.11687206597867" lon="1.1782967793131258"><ele>338.0</ele><time>2026-04-02T05:29:37Z</time></trkpt><trkpt lat="43.11688081769284" lon="1.1784969421990423"><ele>338.0</ele><time>2026-04-02T05:29:38Z</time></trkpt><trkpt lat="43.11691508166187" lon="1.1786973876337787"><ele>338.0</ele><time>2026-04-02T05:29:39Z</time></trkpt><trkpt lat="43.11693614599363" lon="1.1788991810283658"><ele>338.0</ele><time>2026-04-02T05:29:40Z</time></trkpt><trkpt lat="43.1169767255076" lon="1.179121186305579"><ele>339.5</ele><time>2026-04-02T05:29:41Z</time></trkpt><trkpt lat="43.1170186341145" lon="1.1793348784921798"><ele>341.0</ele><time>2026-04-02T05:29:42Z</time></trkpt><trkpt lat="43.11705907645351" lon="1.1795186163561433"><ele>342.5</ele><time>2026-04-02T05:29:43Z</time></trkpt><trkpt lat="43.117097007629354" lon="1.1796877521278126"><ele>344.0</ele><time>2026-04-02T05:29:44Z</time></trkpt><trkpt lat="43.11714842335141" lon="1.1798379681034172"><ele>345.0</ele><time>2026-04-02T05:29:45Z</time></trkpt><trkpt lat="43.11723078628444" lon="1.1799869961076743"><ele>346.0</ele><time>2026-04-02T05:29:46Z</time></trkpt><trkpt lat="43.11733545687727" lon="1.1801277960798746"><ele>347.0</ele><time>2026-04-02T05:29:47Z</time></trkpt><trkpt lat="43.11745576314104" lon="1.1802398119926014"><ele>348.0</ele><time>2026-04-02T05:29:48Z</time></trkpt><trkpt lat="43.11758069165059" lon="1.1803385978381524"><ele>344.25</ele><time>2026-04-02T05:29:49Z</time></trkpt><trkpt lat="43.11771301077728" lon="1.180398595931891"><ele>340.5</ele><time>2026-04-02T05:29:50Z</time></trkpt><trkpt lat="43.11785058760277" lon="1.1804135699345288"><ele>336.75</ele><time>2026-04-02T05:29:51Z</time></trkpt><trkpt lat="43.117946091254574" lon="1.1804033626997836"><ele>333.0</ele><time>2026-04-02T05:29:52Z</time></trkpt><trkpt lat="43.11793454487908" lon="1.180510860346682"><ele>333.0</ele><time>2026-04-02T05:29:56Z</time></trkpt><trkpt lat="43.11784830121948" lon="1.1805277415969073"><ele>333.0</ele><time>2026-04-02T05:29:57Z</time></trkpt><trkpt lat="43.11773678592719" lon="1.1805978410474287"><ele>333.0</ele><time>2026-04-02T05:29:58Z</time></trkpt><trkpt lat="43.11763811457358" lon="1.180712855937871"><ele>333.0</ele><time>2026-04-02T05:29:59Z</time></trkpt><trkpt lat="43.117556659961" lon="1.1808436935362212"><ele>331.25</ele><time>2026-04-02T05:30:00Z</time></trkpt><trkpt lat="43.117498362934995" lon="1.1810126997341792"><ele>329.5</ele><time>2026-04-02T05:30:01Z</time></trkpt><trkpt lat="43.11746491804887" lon="1.1812073156895653"><ele>327.75</ele><time>2026-04-02T05:30:02Z</time></trkpt><trkpt lat="43.11745884936185" lon="1.1814126315569216"><ele>326.0</ele><time>2026-04-02T05:30:03Z</time></trkpt><trkpt lat="43.11747325977531" lon="1.181608773494097"><ele>324.6</ele><time>2026-04-02T05:30:04Z</time></trkpt><trkpt lat="43.11749560424467" lon="1.181780879712384"><ele>323.20000000000005</ele><time>2026-04-02T05:30:05Z</time></trkpt><trkpt lat="43.11752898253447" lon="1.181928680445279"><ele>321.79999999999995</ele><time>2026-04-02T05:30:06Z</time></trkpt><trkpt lat="43.11758407370427" lon="1.1820451513808143"><ele>320.4</ele><time>2026-04-02T05:30:07Z</time></trkpt><trkpt lat="43.1176620897057" lon="1.1821370127868451"><ele>319.0</ele><time>2026-04-02T05:30:08Z</time></trkpt><trkpt lat="43.117739478478924" lon="1.182216119608073"><ele>319.0</ele><time>2026-04-02T05:30:09Z</time></trkpt><trkpt lat="43.11780176661077" lon="1.1823048024375675"><ele>319.0</ele><time>2026-04-02T05:30:10Z</time></trkpt><trkpt lat="43.117845817658" lon="1.182418782648102"><ele>319.0</ele><time>2026-04-02T05:30:11Z</time></trkpt><trkpt lat="43.11783938618393" lon="1.1825647595419733"><ele>319.0</ele><time>2026-04-02T05:30:12Z</time></trkpt><trkpt lat="43.117806707704666" lon="1.1826924722380006"><ele>319.0</ele><time>2026-04-02T05:30:13Z</time></trkpt><trkpt lat="43.11776423642651" lon="1.1828515434684375"><ele>318.5</ele><time>2026-04-02T05:30:14Z</time></trkpt><trkpt lat="43.1177224525755" lon="1.183042995255358"><ele>318.0</ele><time>2026-04-02T05:30:15Z</time></trkpt><trkpt lat="43.117675396373414" lon="1.1832254885498221"><ele>317.5</ele><time>2026-04-02T05:30:16Z</time></trkpt><trkpt lat="43.117629588177095" lon="1.1833833748555054"><ele>317.0</ele><time>2026-04-02T05:30:17Z</time></trkpt><trkpt lat="43.117582846878676" lon="1.1835066616008956"><ele>316.5</ele><time>2026-04-02T05:30:18Z</time></trkpt><trkpt lat="43.11750631237069" lon="1.1836052572527607"><ele>316.0</ele><time>2026-04-02T05:30:19Z</time></trkpt><trkpt lat="43.117373453938164" lon="1.183659417409276"><ele>315.5</ele><time>2026-04-02T05:30:20Z</time></trkpt><trkpt lat="43.1172448738868" lon="1.1837143061945599"><ele>315.0</ele><time>2026-04-02T05:30:21Z</time></trkpt><trkpt lat="43.117118040513695" lon="1.183765233983173"><ele>315.4</ele><time>2026-04-02T05:30:22Z</time></trkpt><trkpt lat="43.117000551064784" lon="1.1838135522073825"><ele>315.8</ele><time>2026-04-02T05:30:23Z</time></trkpt><trkpt lat="43.11689447298202" lon="1.183861953544685"><ele>316.2</ele><time>2026-04-02T05:30:24Z</time></trkpt><trkpt lat="43.11681338669521" lon="1.183905279050936"><ele>316.6</ele><time>2026-04-02T05:30:25Z</time></trkpt><trkpt lat="43.11675689092263" lon="1.1839477936926175"><ele>317.0</ele><time>2026-04-02T05:30:26Z</time></trkpt><trkpt lat="43.11669853403705" lon="1.184095951565821"><ele>317.0</ele><time>2026-04-02T05:30:28Z</time></trkpt><trkpt lat="43.116669551478864" lon="1.1842156497782537"><ele>317.0</ele><time>2026-04-02T05:30:29Z</time></trkpt><trkpt lat="43.116639868922626" lon="1.1843564457556188"><ele>317.0</ele><time>2026-04-02T05:30:30Z</time></trkpt><trkpt lat="43.116618857654245" lon="1.1844896131775737"><ele>317.0</ele><time>2026-04-02T05:30:31Z</time></trkpt><trkpt lat="43.116621898286425" lon="1.1845983693855304"><ele>317.0</ele><time>2026-04-02T05:30:32Z</time></trkpt><trkpt lat="43.11662428748934" lon="1.1846979099563233"><ele>316.8</ele><time>2026-04-02T05:30:34Z</time></trkpt><trkpt lat="43.116537755537365" lon="1.184794248026953"><ele>316.6</ele><time>2026-04-02T05:30:36Z</time></trkpt><trkpt lat="43.11644683881353" lon="1.184846300316279"><ele>316.40000000000003</ele><time>2026-04-02T05:30:37Z</time></trkpt><trkpt lat="43.11633737325319" lon="1.18490709625075"><ele>316.2</ele><time>2026-04-02T05:30:38Z</time></trkpt><trkpt lat="43.11623199785011" lon="1.184973471491818"><ele>316.0</ele><time>2026-04-02T05:30:39Z</time></trkpt><trkpt lat="43.116128091047045" lon="1.1850429241895377"><ele>315.8</ele><time>2026-04-02T05:30:40Z</time></trkpt><trkpt lat="43.11602326070846" lon="1.1851135521194234"><ele>315.6</ele><time>2026-04-02T05:30:41Z</time></trkpt><trkpt lat="43.11592833676085" lon="1.1851761554938942"><ele>315.4</ele><time>2026-04-02T05:30:42Z</time></trkpt><trkpt lat="43.11584487508615" lon="1.1852283455343802"><ele>315.2</ele><time>2026-04-02T05:30:43Z</time></trkpt><trkpt lat="43.11577278008656" lon="1.1852769031680217"><ele>315.0</ele><time>2026-04-02T05:30:44Z</time></trkpt><trkpt lat="43.11570801424596" lon="1.1853191584127245"><ele>315.0</ele><time>2026-04-02T05:30:45Z</time></trkpt><trkpt lat="43.11560695931204" lon="1.1853752300638007"><ele>315.0</ele><time>2026-04-02T05:30:47Z</time></trkpt><trkpt lat="43.1155882803656" lon="1.1855227539017525"><ele>315.0</ele><time>2026-04-02T05:30:49Z</time></trkpt><trkpt lat="43.11559832498307" lon="1.185648035140257"><ele>315.0</ele><time>2026-04-02T05:30:51Z</time></trkpt><trkpt lat="43.115607204796376" lon="1.1857434413366563"><ele>315.0</ele><time>2026-04-02T05:30:52Z</time></trkpt><trkpt lat="43.11561724623738" lon="1.1858619646952544"><ele>314.2</ele><time>2026-04-02T05:30:53Z</time></trkpt><trkpt lat="43.1156444666361" lon="1.1859948629970405"><ele>313.4</ele><time>2026-04-02T05:30:54Z</time></trkpt><trkpt lat="43.11565344910211" lon="1.1861364435686275"><ele>312.6</ele><time>2026-04-02T05:30:55Z</time></trkpt><trkpt lat="43.11562087599744" lon="1.1862756167352317"><ele>311.8</ele><time>2026-04-02T05:30:56Z</time></trkpt><trkpt lat="43.115594128430835" lon="1.1864193622666719"><ele>311.0</ele><time>2026-04-02T05:30:57Z</time></trkpt><trkpt lat="43.115544582281636" lon="1.1865401386077756"><ele>313.0</ele><time>2026-04-02T05:30:58Z</time></trkpt><trkpt lat="43.115481957490736" lon="1.1866434972662065"><ele>315.0</ele><time>2026-04-02T05:30:59Z</time></trkpt><trkpt lat="43.115395672573094" lon="1.1867178101193367"><ele>317.0</ele><time>2026-04-02T05:31:00Z</time></trkpt><trkpt lat="43.11529039007001" lon="1.186787809815555"><ele>319.0</ele><time>2026-04-02T05:31:01Z</time></trkpt><trkpt lat="43.11517036218847" lon="1.1868444125398832"><ele>321.0</ele><time>2026-04-02T05:31:02Z</time></trkpt><trkpt lat="43.115040574978366" lon="1.1869038691511993"><ele>320.6666666666667</ele><time>2026-04-02T05:31:03Z</time></trkpt><trkpt lat="43.114896770081884" lon="1.186972255927557"><ele>320.33333333333337</ele><time>2026-04-02T05:31:04Z</time></trkpt><trkpt lat="43.11475042365678" lon="1.1870478093764418"><ele>320.0</ele><time>2026-04-02T05:31:05Z</time></trkpt><trkpt lat="43.114608542743795" lon="1.187137967533555"><ele>320.0</ele><time>2026-04-02T05:31:06Z</time></trkpt><trkpt lat="43.114442761352635" lon="1.1871816847795404"><ele>320.0</ele><time>2026-04-02T05:31:07Z</time></trkpt><trkpt lat="43.114291073615696" lon="1.1872284045694836"><ele>320.0</ele><time>2026-04-02T05:31:08Z</time></trkpt><trkpt lat="43.114157015696115" lon="1.1872682983974434"><ele>319.0</ele><time>2026-04-02T05:31:09Z</time></trkpt><trkpt lat="43.114032042365274" lon="1.1873229399646505"><ele>318.0</ele><time>2026-04-02T05:31:10Z</time></trkpt><trkpt lat="43.11390758636118" lon="1.1874026003095832"><ele>317.0</ele><time>2026-04-02T05:31:11Z</time></trkpt><trkpt lat="43.113789136743904" lon="1.1874914514088868"><ele>316.0</ele><time>2026-04-02T05:31:12Z</time></trkpt><trkpt lat="43.113678821717734" lon="1.1875705064549082"><ele>318.3333333333333</ele><time>2026-04-02T05:31:13Z</time></trkpt><trkpt lat="43.11358660351331" lon="1.1876417015270782"><ele>320.66666666666663</ele><time>2026-04-02T05:31:14Z</time></trkpt><trkpt lat="43.113509759082554" lon="1.187697524314155"><ele>323.0</ele><time>2026-04-02T05:31:15Z</time></trkpt><trkpt lat="43.11345922312606" lon="1.1877757860419171"><ele>325.3333333333333</ele><time>2026-04-02T05:31:16Z</time></trkpt><trkpt lat="43.113453147375616" lon="1.1878690202157711"><ele>327.6666666666667</ele><time>2026-04-02T05:31:17Z</time></trkpt><trkpt lat="43.11348057228073" lon="1.187968873224585"><ele>330.0</ele><time>2026-04-02T05:31:18Z</time></trkpt><trkpt lat="43.11351420293284" lon="1.1880621734994496"><ele>330.0</ele><time>2026-04-02T05:31:19Z</time></trkpt><trkpt lat="43.11360932998822" lon="1.1881174137670825"><ele>330.0</ele><time>2026-04-02T05:31:20Z</time></trkpt><trkpt lat="43.11371722463349" lon="1.1880617448782564"><ele>330.0</ele><time>2026-04-02T05:31:21Z</time></trkpt><trkpt lat="43.1138158864947" lon="1.1879958223224487"><ele>330.0</ele><time>2026-04-02T05:31:22Z</time></trkpt><trkpt lat="43.1139387533819" lon="1.1879649395309575"><ele>330.0</ele><time>2026-04-02T05:31:23Z</time></trkpt><trkpt lat="43.11404171353288" lon="1.1879402161889192"><ele>330.0</ele><time>2026-04-02T05:31:24Z</time></trkpt><trkpt lat="43.114118723807515" lon="1.1879371594310713"><ele>330.0</ele><time>2026-04-02T05:31:25Z</time></trkpt><trkpt lat="43.11422092776622" lon="1.1879431235063191"><ele>330.0</ele><time>2026-04-02T05:31:27Z</time></trkpt><trkpt lat="43.11429781096064" lon="1.187950991367973"><ele>330.0</ele><time>2026-04-02T05:31:30Z</time></trkpt><trkpt lat="43.11440378190763" lon="1.1879643038642653"><ele>331.3333333333333</ele><time>2026-04-02T05:31:33Z</time></trkpt><trkpt lat="43.114466515413646" lon="1.18797460473517"><ele>332.6666666666667</ele><time>2026-04-02T05:31:34Z</time></trkpt><trkpt lat="43.11454779637612" lon="1.1879959987252646"><ele>334.0</ele><time>2026-04-02T05:31:35Z</time></trkpt><trkpt lat="43.11463920520127" lon="1.1880200585146043"><ele>335.33333333333337</ele><time>2026-04-02T05:31:36Z</time></trkpt><trkpt lat="43.114728612507214" lon="1.1880410945833941"><ele>336.6666666666667</ele><time>2026-04-02T05:31:37Z</time></trkpt><trkpt lat="43.114834653763516" lon="1.1880386553448747"><ele>338.0</ele><time>2026-04-02T05:31:38Z</time></trkpt><trkpt lat="43.11493753186049" lon="1.1880578645861157"><ele>339.2</ele><time>2026-04-02T05:31:39Z</time></trkpt><trkpt lat="43.11503939588563" lon="1.1880486896680766"><ele>340.4</ele><time>2026-04-02T05:31:40Z</time></trkpt><trkpt lat="43.115141440906385" lon="1.188059087791551"><ele>341.59999999999997</ele><time>2026-04-02T05:31:41Z</time></trkpt><trkpt lat="43.11524144746572" lon="1.1880550182552423"><ele>342.79999999999995</ele><time>2026-04-02T05:31:42Z</time></trkpt><trkpt lat="43.11534004124682" lon="1.1880500094116475"><ele>344.0</ele><time>2026-04-02T05:31:43Z</time></trkpt><trkpt lat="43.115435644441504" lon="1.1880433623850026"><ele>344.0</ele><time>2026-04-02T05:31:44Z</time></trkpt><trkpt lat="43.115532194167535" lon="1.1880366495462293"><ele>344.0</ele><time>2026-04-02T05:31:45Z</time></trkpt><trkpt lat="43.11563137340178" lon="1.1880368004110318"><ele>344.0</ele><time>2026-04-02T05:31:46Z</time></trkpt><trkpt lat="43.11573346869914" lon="1.1880461786400802"><ele>344.0</ele><time>2026-04-02T05:31:47Z</time></trkpt><trkpt lat="43.11582423944854" lon="1.1881050128830306"><ele>344.0</ele><time>2026-04-02T05:31:48Z</time></trkpt><trkpt lat="43.1158728407316" lon="1.1882464358822922"><ele>348.79999999999995</ele><time>2026-04-02T05:31:49Z</time></trkpt><trkpt lat="43.11595033594479" lon="1.188312470044843"><ele>353.59999999999997</ele><time>2026-04-02T05:31:50Z</time></trkpt><trkpt lat="43.11603665421984" lon="1.1883520991937513"><ele>358.4</ele><time>2026-04-02T05:31:51Z</time></trkpt><trkpt lat="43.11613123570806" lon="1.1883777939714333"><ele>363.2</ele><time>2026-04-02T05:31:52Z</time></trkpt><trkpt lat="43.11622407774223" lon="1.1883873079102403"><ele>368.0</ele><time>2026-04-02T05:31:53Z</time></trkpt><trkpt lat="43.11630594981441" lon="1.1883234126937452"><ele>368.0</ele><time>2026-04-02T05:31:54Z</time></trkpt><trkpt lat="43.11637339499957" lon="1.1883290305805463"><ele>368.0</ele><time>2026-04-02T05:31:55Z</time></trkpt><trkpt lat="43.11644048880087" lon="1.1884006170188706"><ele>368.0</ele><time>2026-04-02T05:31:57Z</time></trkpt><trkpt lat="43.116350702038126" lon="1.1885195942455224"><ele>368.0</ele><time>2026-04-02T05:31:59Z</time></trkpt><trkpt lat="43.11627188996684" lon="1.1885396823182242"><ele>368.0</ele><time>2026-04-02T05:32:00Z</time></trkpt><trkpt lat="43.11618596937226" lon="1.1885970909040275"><ele>368.0</ele><time>2026-04-02T05:32:01Z</time></trkpt><trkpt lat="43.116085500649426" lon="1.1886054865108304"><ele>368.0</ele><time>2026-04-02T05:32:02Z</time></trkpt><trkpt lat="43.11598730914196" lon="1.1885923409611239"><ele>368.0</ele><time>2026-04-02T05:32:03Z</time></trkpt><trkpt lat="43.11589766616628" lon="1.1885282478088188"><ele>368.0</ele><time>2026-04-02T05:32:04Z</time></trkpt><trkpt lat="43.11581735667536" lon="1.1884570730289332"><ele>368.0</ele><time>2026-04-02T05:32:05Z</time></trkpt><trkpt lat="43.11572973467564" lon="1.1884160231236442"><ele>367.59999999999997</ele><time>2026-04-02T05:32:06Z</time></trkpt><trkpt lat="43.11564249926515" lon="1.188421068786434"><ele>367.2</ele><time>2026-04-02T05:32:07Z</time></trkpt><trkpt lat="43.115550896049015" lon="1.1884472903301622"><ele>366.8</ele><time>2026-04-02T05:32:08Z</time></trkpt><trkpt lat="43.11547099548761" lon="1.188506943496421"><ele>366.4</ele><time>2026-04-02T05:32:09Z</time></trkpt><trkpt lat="43.115377306324305" lon="1.188576962251052"><ele>366.0</ele><time>2026-04-02T05:32:10Z</time></trkpt><trkpt lat="43.11527776413608" lon="1.1886562933421658"><ele>366.0</ele><time>2026-04-02T05:32:11Z</time></trkpt><trkpt lat="43.11516976939504" lon="1.188752617481037"><ele>366.0</ele><time>2026-04-02T05:32:12Z</time></trkpt><trkpt lat="43.115054342948156" lon="1.1888677133795116"><ele>366.0</ele><time>2026-04-02T05:32:13Z</time></trkpt><trkpt lat="43.1149414810978" lon="1.1889798656652717"><ele>366.0</ele><time>2026-04-02T05:32:14Z</time></trkpt><trkpt lat="43.11483481472052" lon="1.1890959133885841"><ele>368.75</ele><time>2026-04-02T05:32:15Z</time></trkpt><trkpt lat="43.11473238472181" lon="1.1892097304911267"><ele>371.5</ele><time>2026-04-02T05:32:16Z</time></trkpt><trkpt lat="43.11463241210863" lon="1.1893220289936564"><ele>374.25</ele><time>2026-04-02T05:32:17Z</time></trkpt><trkpt lat="43.11453747889691" lon="1.1894318996981614"><ele>377.0</ele><time>2026-04-02T05:32:18Z</time></trkpt><trkpt lat="43.11444730386141" lon="1.1895364627152312"><ele>377.0</ele><time>2026-04-02T05:32:19Z</time></trkpt><trkpt lat="43.11436186967161" lon="1.1896395347734123"><ele>377.0</ele><time>2026-04-02T05:32:20Z</time></trkpt><trkpt lat="43.1142808973896" lon="1.189737111072177"><ele>377.0</ele><time>2026-04-02T05:32:21Z</time></trkpt><trkpt lat="43.1142031346377" lon="1.1898348146935405"><ele>377.0</ele><time>2026-04-02T05:32:22Z</time></trkpt><trkpt lat="43.11413269730285" lon="1.1899407531512773"><ele>377.0</ele><time>2026-04-02T05:32:23Z</time></trkpt><trkpt lat="43.11408145414944" lon="1.1900735386812766"><ele>375.75</ele><time>2026-04-02T05:32:24Z</time></trkpt><trkpt lat="43.11404827886936" lon="1.1902231122687859"><ele>374.5</ele><time>2026-04-02T05:32:25Z</time></trkpt><trkpt lat="43.114033266227445" lon="1.1903870349526093"><ele>373.25</ele><time>2026-04-02T05:32:26Z</time></trkpt><trkpt lat="43.114040382720894" lon="1.1905522467571024"><ele>372.0</ele><time>2026-04-02T05:32:27Z</time></trkpt><trkpt lat="43.11406430765699" lon="1.1907251676456363"><ele>379.25</ele><time>2026-04-02T05:32:28Z</time></trkpt><trkpt lat="43.114102376879856" lon="1.1909001649993516"><ele>386.5</ele><time>2026-04-02T05:32:29Z</time></trkpt><trkpt lat="43.114144708395585" lon="1.1910728571054547"><ele>393.75</ele><time>2026-04-02T05:32:30Z</time></trkpt><trkpt lat="43.114189865796234" lon="1.1912462401010293"><ele>401.0</ele><time>2026-04-02T05:32:31Z</time></trkpt><trkpt lat="43.11423145616734" lon="1.1914245213724186"><ele>401.25</ele><time>2026-04-02T05:32:32Z</time></trkpt><trkpt lat="43.11427092836105" lon="1.1915955833275225"><ele>401.5</ele><time>2026-04-02T05:32:33Z</time></trkpt><trkpt lat="43.114290379558135" lon="1.1917708968239922"><ele>401.75</ele><time>2026-04-02T05:32:34Z</time></trkpt><trkpt lat="43.11432267530736" lon="1.1919324696177904"><ele>402.0</ele><time>2026-04-02T05:32:35Z</time></trkpt><trkpt lat="43.114347974731885" lon="1.1920891509520666"><ele>402.0</ele><time>2026-04-02T05:32:36Z</time></trkpt><trkpt lat="43.11435663277591" lon="1.1922410334743734"><ele>402.0</ele><time>2026-04-02T05:32:37Z</time></trkpt><trkpt lat="43.11433980207052" lon="1.1923950564677035"><ele>402.0</ele><time>2026-04-02T05:32:38Z</time></trkpt><trkpt lat="43.11430500497774" lon="1.1925439007155028"><ele>402.0</ele><time>2026-04-02T05:32:39Z</time></trkpt><trkpt lat="43.11426648273916" lon="1.1927024353416125"><ele>403.25</ele><time>2026-04-02T05:32:40Z</time></trkpt><trkpt lat="43.1141995993705" lon="1.1928565471453325"><ele>404.5</ele><time>2026-04-02T05:32:41Z</time></trkpt><trkpt lat="43.1141370417372" lon="1.1930063386151706"><ele>405.75</ele><time>2026-04-02T05:32:42Z</time></trkpt><trkpt lat="43.11408936707232" lon="1.1931578906108145"><ele>407.0</ele><time>2026-04-02T05:32:43Z</time></trkpt><trkpt lat="43.11406589320303" lon="1.1933189282623506"><ele>409.25</ele><time>2026-04-02T05:32:44Z</time></trkpt><trkpt lat="43.11406140085624" lon="1.1934873196033746"><ele>411.5</ele><time>2026-04-02T05:32:45Z</time></trkpt><trkpt lat="43.11406543254606" lon="1.1936615262844177"><ele>413.75</ele><time>2026-04-02T05:32:46Z</time></trkpt><trkpt lat="43.114067137179454" lon="1.1938417174270386"><ele>416.0</ele><time>2026-04-02T05:32:47Z</time></trkpt><trkpt lat="43.11406475789022" lon="1.1940270904245784"><ele>416.25</ele><time>2026-04-02T05:32:48Z</time></trkpt><trkpt lat="43.11406067304817" lon="1.1942164881148447"><ele>416.5</ele><time>2026-04-02T05:32:49Z</time></trkpt><trkpt lat="43.11405518362915" lon="1.1943997009387863"><ele>416.75</ele><time>2026-04-02T05:32:50Z</time></trkpt><trkpt lat="43.11404851157181" lon="1.1945801920021872"><ele>417.0</ele><time>2026-04-02T05:32:51Z</time></trkpt><trkpt lat="43.11404382621124" lon="1.194757987090225"><ele>418.5</ele><time>2026-04-02T05:32:52Z</time></trkpt><trkpt lat="43.11403851188864" lon="1.1949346033239252"><ele>420.0</ele><time>2026-04-02T05:32:53Z</time></trkpt><trkpt lat="43.11403068157692" lon="1.1951062709140345"><ele>421.5</ele><time>2026-04-02T05:32:54Z</time></trkpt><trkpt lat="43.11402346052003" lon="1.1952789906060632"><ele>423.0</ele><time>2026-04-02T05:32:55Z</time></trkpt><trkpt lat="43.11401395178544" lon="1.1954552169452928"><ele>423.0</ele><time>2026-04-02T05:32:56Z</time></trkpt><trkpt lat="43.11400647585424" lon="1.1956333805951527"><ele>423.0</ele><time>2026-04-02T05:32:57Z</time></trkpt><trkpt lat="43.113998371337075" lon="1.1958328281474548"><ele>423.0</ele><time>2026-04-02T05:32:58Z</time></trkpt><trkpt lat="43.11398806228653" lon="1.196048804287458"><ele>423.0</ele><time>2026-04-02T05:32:59Z</time></trkpt><trkpt lat="43.11397888525011" lon="1.1962623263882013"><ele>424.33333333333337</ele><time>2026-04-02T05:33:00Z</time></trkpt><trkpt lat="43.113970205448354" lon="1.1964755727320677"><ele>425.6666666666667</ele><time>2026-04-02T05:33:01Z</time></trkpt><trkpt lat="43.11393743151613" lon="1.1966847759224244"><ele>427.0</ele><time>2026-04-02T05:33:02Z</time></trkpt><trkpt lat="43.11391369336949" lon="1.19689640450784"><ele>428.6666666666667</ele><time>2026-04-02T05:33:03Z</time></trkpt><trkpt lat="43.11389907649437" lon="1.1971088343534866"><ele>430.33333333333337</ele><time>2026-04-02T05:33:04Z</time></trkpt><trkpt lat="43.113839917159375" lon="1.1973160371682148"><ele>432.0</ele><time>2026-04-02T05:33:05Z</time></trkpt><trkpt lat="43.11380849636264" lon="1.1975281524170416"><ele>434.0</ele><time>2026-04-02T05:33:06Z</time></trkpt><trkpt lat="43.11376099647276" lon="1.1977261162903978"><ele>436.0</ele><time>2026-04-02T05:33:07Z</time></trkpt><trkpt lat="43.11371190254811" lon="1.1979243528778754"><ele>438.0</ele><time>2026-04-02T05:33:08Z</time></trkpt><trkpt lat="43.11366234003336" lon="1.198119113058145"><ele>440.0</ele><time>2026-04-02T05:33:09Z</time></trkpt><trkpt lat="43.11361159291962" lon="1.1983141854826318"><ele>442.0</ele><time>2026-04-02T05:33:10Z</time></trkpt><trkpt lat="43.113562734498245" lon="1.1985061814243183"><ele>444.0</ele><time>2026-04-02T05:33:11Z</time></trkpt><trkpt lat="43.113510934468664" lon="1.1986970779154549"><ele>446.0</ele><time>2026-04-02T05:33:12Z</time></trkpt><trkpt lat="43.11346201118199" lon="1.1988896758195837"><ele>448.0</ele><time>2026-04-02T05:33:13Z</time></trkpt><trkpt lat="43.11341520786674" lon="1.1990819587404602"><ele>450.0</ele><time>2026-04-02T05:33:14Z</time></trkpt><trkpt lat="43.1133679617092" lon="1.1992692720430107"><ele>452.0</ele><time>2026-04-02T05:33:15Z</time></trkpt><trkpt lat="43.11332218900682" lon="1.1994531864343765"><ele>454.0</ele><time>2026-04-02T05:33:16Z</time></trkpt><trkpt lat="43.113279168617574" lon="1.1996348558244159"><ele>454.0</ele><time>2026-04-02T05:33:17Z</time></trkpt><trkpt lat="43.11323796862169" lon="1.199817203652545"><ele>454.0</ele><time>2026-04-02T05:33:18Z</time></trkpt><trkpt lat="43.11320039997887" lon="1.1999760131118338"><ele>454.0</ele><time>2026-04-02T05:33:19Z</time></trkpt><trkpt lat="43.11316539815579" lon="1.200112384157723"><ele>454.0</ele><time>2026-04-02T05:33:20Z</time></trkpt><trkpt lat="43.113127452400335" lon="1.2002265697760135"><ele>455.2</ele><time>2026-04-02T05:33:21Z</time></trkpt><trkpt lat="43.11307391351049" lon="1.200335471623346"><ele>456.4</ele><time>2026-04-02T05:33:22Z</time></trkpt><trkpt lat="43.11300093587851" lon="1.2004213514095357"><ele>457.6</ele><time>2026-04-02T05:33:23Z</time></trkpt><trkpt lat="43.11290084364872" lon="1.2004225062331162"><ele>458.8</ele><time>2026-04-02T05:33:24Z</time></trkpt><trkpt lat="43.112801472307" lon="1.200462602958031"><ele>460.0</ele><time>2026-04-02T05:33:25Z</time></trkpt><trkpt lat="43.112704236406344" lon="1.2004735793037593"><ele>460.0</ele><time>2026-04-02T05:33:26Z</time></trkpt><trkpt lat="43.11261465876926" lon="1.2004981571846849"><ele>460.0</ele><time>2026-04-02T05:33:27Z</time></trkpt><trkpt lat="43.11254297590869" lon="1.2005903983897943"><ele>460.0</ele><time>2026-04-02T05:33:28Z</time></trkpt><trkpt lat="43.11245443450454" lon="1.2006640239043194"><ele>460.0</ele><time>2026-04-02T05:33:29Z</time></trkpt><trkpt lat="43.1124194287368" lon="1.200856950430953"><ele>460.0</ele><time>2026-04-02T05:33:30Z</time></trkpt><trkpt lat="43.112388831524626" lon="1.201025618552541"><ele>457.5</ele><time>2026-04-02T05:33:31Z</time></trkpt><trkpt lat="43.11237825721181" lon="1.201214360527"><ele>455.0</ele><time>2026-04-02T05:33:32Z</time></trkpt><trkpt lat="43.1123725176198" lon="1.2014199855215786"><ele>452.5</ele><time>2026-04-02T05:33:33Z</time></trkpt><trkpt lat="43.112357816156354" lon="1.2016275635512081"><ele>450.0</ele><time>2026-04-02T05:33:34Z</time></trkpt><trkpt lat="43.11234403633634" lon="1.2018345192227502"><ele>450.0</ele><time>2026-04-02T05:33:35Z</time></trkpt><trkpt lat="43.11232827638961" lon="1.202042282423332"><ele>450.0</ele><time>2026-04-02T05:33:36Z</time></trkpt><trkpt lat="43.11232649678962" lon="1.202255635292205"><ele>450.0</ele><time>2026-04-02T05:33:37Z</time></trkpt><trkpt lat="43.11230776492376" lon="1.202472514902755"><ele>452.33333333333337</ele><time>2026-04-02T05:33:38Z</time></trkpt><trkpt lat="43.11232558179784" lon="1.2026973550262667"><ele>454.6666666666667</ele><time>2026-04-02T05:33:39Z</time></trkpt><trkpt lat="43.11233028609608" lon="1.2029293077362562"><ele>457.0</ele><time>2026-04-02T05:33:40Z</time></trkpt><trkpt lat="43.112338338594846" lon="1.2031618879658637"><ele>458.5</ele><time>2026-04-02T05:33:41Z</time></trkpt><trkpt lat="43.112345196958664" lon="1.2033763828324375"><ele>460.0</ele><time>2026-04-02T05:33:42Z</time></trkpt><trkpt lat="43.112350821839144" lon="1.2035662424794966"><ele>461.5</ele><time>2026-04-02T05:33:43Z</time></trkpt><trkpt lat="43.11235278426594" lon="1.2037443034582769"><ele>463.0</ele><time>2026-04-02T05:33:44Z</time></trkpt><trkpt lat="43.11235623599593" lon="1.203925117419942"><ele>466.0</ele><time>2026-04-02T05:33:45Z</time></trkpt><trkpt lat="43.11235724972619" lon="1.2041267712503807"><ele>469.0</ele><time>2026-04-02T05:33:46Z</time></trkpt><trkpt lat="43.11236021155435" lon="1.2043424967910548"><ele>472.0</ele><time>2026-04-02T05:33:47Z</time></trkpt><trkpt lat="43.11236574744468" lon="1.204555090855363"><ele>472.0</ele><time>2026-04-02T05:33:48Z</time></trkpt><trkpt lat="43.112374383025575" lon="1.2047681561743082"><ele>472.0</ele><time>2026-04-02T05:33:49Z</time></trkpt><trkpt lat="43.11237661031319" lon="1.2049711752694896"><ele>472.0</ele><time>2026-04-02T05:33:50Z</time></trkpt><trkpt lat="43.112382845019596" lon="1.20514967425435"><ele>472.0</ele><time>2026-04-02T05:33:51Z</time></trkpt><trkpt lat="43.112404422498706" lon="1.2053136841833871"><ele>478.25</ele><time>2026-04-02T05:33:52Z</time></trkpt><trkpt lat="43.11244438223392" lon="1.2054748826901154"><ele>484.5</ele><time>2026-04-02T05:33:53Z</time></trkpt><trkpt lat="43.11249786471166" lon="1.2056320607464777"><ele>490.75</ele><time>2026-04-02T05:33:54Z</time></trkpt><trkpt lat="43.112565647099224" lon="1.205777639013634"><ele>497.0</ele><time>2026-04-02T05:33:55Z</time></trkpt><trkpt lat="43.11265002904144" lon="1.2059032345829217"><ele>497.0</ele><time>2026-04-02T05:33:56Z</time></trkpt><trkpt lat="43.112748641906" lon="1.2060091372265933"><ele>497.0</ele><time>2026-04-02T05:33:57Z</time></trkpt><trkpt lat="43.11284891140579" lon="1.2061096798499975"><ele>497.0</ele><time>2026-04-02T05:33:58Z</time></trkpt><trkpt lat="43.11293202234533" lon="1.2062317807310694"><ele>497.0</ele><time>2026-04-02T05:33:59Z</time></trkpt><trkpt lat="43.113008397763565" lon="1.2063455837384098"><ele>497.0</ele><time>2026-04-02T05:34:00Z</time></trkpt><trkpt lat="43.1130675413652" lon="1.2064903499940844"><ele>497.0</ele><time>2026-04-02T05:34:01Z</time></trkpt><trkpt lat="43.11310750713762" lon="1.206659415065085"><ele>497.0</ele><time>2026-04-02T05:34:02Z</time></trkpt><trkpt lat="43.11313763391328" lon="1.2068403881118843"><ele>497.0</ele><time>2026-04-02T05:34:03Z</time></trkpt><trkpt lat="43.11317618538133" lon="1.207029914467187"><ele>496.5</ele><time>2026-04-02T05:34:04Z</time></trkpt><trkpt lat="43.11320430493546" lon="1.2072272797032646"><ele>496.0</ele><time>2026-04-02T05:34:05Z</time></trkpt><trkpt lat="43.11323019440308" lon="1.2074280935858526"><ele>495.5</ele><time>2026-04-02T05:34:06Z</time></trkpt><trkpt lat="43.1132570184809" lon="1.2076236743985909"><ele>495.0</ele><time>2026-04-02T05:34:07Z</time></trkpt><trkpt lat="43.11328364653356" lon="1.207820678358888"><ele>498.25</ele><time>2026-04-02T05:34:08Z</time></trkpt><trkpt lat="43.11331290076142" lon="1.2080210302151932"><ele>501.5</ele><time>2026-04-02T05:34:09Z</time></trkpt><trkpt lat="43.11334203269451" lon="1.2082193494283047"><ele>504.75</ele><time>2026-04-02T05:34:10Z</time></trkpt><trkpt lat="43.1133697443486" lon="1.208415112831436"><ele>508.0</ele><time>2026-04-02T05:34:11Z</time></trkpt><trkpt lat="43.11339806860248" lon="1.2086094636655498"><ele>509.25</ele><time>2026-04-02T05:34:12Z</time></trkpt><trkpt lat="43.11342828832155" lon="1.2087990274774263"><ele>510.5</ele><time>2026-04-02T05:34:13Z</time></trkpt><trkpt lat="43.1134623106494" lon="1.2089837649991535"><ele>511.75</ele><time>2026-04-02T05:34:14Z</time></trkpt><trkpt lat="43.113502811738485" lon="1.209162652270275"><ele>513.0</ele><time>2026-04-02T05:34:15Z</time></trkpt><trkpt lat="43.113546383858306" lon="1.2093417561715623"><ele>514.0</ele><time>2026-04-02T05:34:16Z</time></trkpt><trkpt lat="43.113591819544425" lon="1.2095197173310617"><ele>515.0</ele><time>2026-04-02T05:34:17Z</time></trkpt><trkpt lat="43.113642837023484" lon="1.2096981197406298"><ele>516.0</ele><time>2026-04-02T05:34:18Z</time></trkpt><trkpt lat="43.11369225218562" lon="1.2098816450403498"><ele>517.0</ele><time>2026-04-02T05:34:19Z</time></trkpt><trkpt lat="43.11373989390138" lon="1.2100686701543837"><ele>517.75</ele><time>2026-04-02T05:34:20Z</time></trkpt><trkpt lat="43.11379017329353" lon="1.2102575606310586"><ele>518.5</ele><time>2026-04-02T05:34:21Z</time></trkpt><trkpt lat="43.11384152288493" lon="1.21044510705131"><ele>519.25</ele><time>2026-04-02T05:34:22Z</time></trkpt><trkpt lat="43.11388763890653" lon="1.2106220850583926"><ele>520.0</ele><time>2026-04-02T05:34:23Z</time></trkpt><trkpt lat="43.11392838356279" lon="1.2107827402189317"><ele>520.4</ele><time>2026-04-02T05:34:24Z</time></trkpt><trkpt lat="43.11396642243232" lon="1.2109107815730675"><ele>520.8</ele><time>2026-04-02T05:34:25Z</time></trkpt><trkpt lat="43.11401052274315" lon="1.2110011218789043"><ele>521.2</ele><time>2026-04-02T05:34:26Z</time></trkpt><trkpt lat="43.11404803578935" lon="1.2110814744600833"><ele>521.6</ele><time>2026-04-02T05:34:27Z</time></trkpt><trkpt lat="43.11409836650682" lon="1.211147076197684"><ele>522.0</ele><time>2026-04-02T05:34:28Z</time></trkpt><trkpt lat="43.1142593760218" lon="1.2111673276857342"><ele>520.0</ele><time>2026-04-02T05:34:30Z</time></trkpt><trkpt lat="43.114368347935894" lon="1.2111686143755922"><ele>518.0</ele><time>2026-04-02T05:34:31Z</time></trkpt><trkpt lat="43.114492730046635" lon="1.2111496242413369"><ele>516.0</ele><time>2026-04-02T05:34:32Z</time></trkpt><trkpt lat="43.11463677806368" lon="1.2111221419836369"><ele>514.0</ele><time>2026-04-02T05:34:33Z</time></trkpt><trkpt lat="43.11479264060961" lon="1.2110962460513397"><ele>513.6666666666667</ele><time>2026-04-02T05:34:34Z</time></trkpt><trkpt lat="43.11494305712232" lon="1.2110694861310627"><ele>513.3333333333334</ele><time>2026-04-02T05:34:35Z</time></trkpt><trkpt lat="43.11510425346973" lon="1.2110286184975816"><ele>513.0</ele><time>2026-04-02T05:34:36Z</time></trkpt><trkpt lat="43.115251691601785" lon="1.2109743151530896"><ele>513.0</ele><time>2026-04-02T05:34:37Z</time></trkpt><trkpt lat="43.11538244792738" lon="1.2108735650565616"><ele>513.0</ele><time>2026-04-02T05:34:38Z</time></trkpt><trkpt lat="43.115508561513" lon="1.2107303155268978"><ele>513.0</ele><time>2026-04-02T05:34:39Z</time></trkpt><trkpt lat="43.11562546188239" lon="1.210564555227541"><ele>512.3333333333334</ele><time>2026-04-02T05:34:40Z</time></trkpt><trkpt lat="43.11573159951125" lon="1.2103932394935233"><ele>511.6666666666667</ele><time>2026-04-02T05:34:41Z</time></trkpt><trkpt lat="43.11583198882868" lon="1.2102276828542453"><ele>511.0</ele><time>2026-04-02T05:34:42Z</time></trkpt><trkpt lat="43.115928553454694" lon="1.210056579526851"><ele>512.0</ele><time>2026-04-02T05:34:43Z</time></trkpt><trkpt lat="43.11602269571222" lon="1.2098991244845976"><ele>513.0</ele><time>2026-04-02T05:34:44Z</time></trkpt><trkpt lat="43.11612256461067" lon="1.2097629287118148"><ele>514.0</ele><time>2026-04-02T05:34:45Z</time></trkpt><trkpt lat="43.116222965388715" lon="1.2096523993367365"><ele>515.0</ele><time>2026-04-02T05:34:46Z</time></trkpt><trkpt lat="43.11634137605175" lon="1.2095746199283035"><ele>515.0</ele><time>2026-04-02T05:34:47Z</time></trkpt><trkpt lat="43.11645775703123" lon="1.209523545388849"><ele>515.0</ele><time>2026-04-02T05:34:48Z</time></trkpt><trkpt lat="43.116560897373304" lon="1.2094935517922447"><ele>515.0</ele><time>2026-04-02T05:34:49Z</time></trkpt><trkpt lat="43.11665453452769" lon="1.2094579629197215"><ele>515.0</ele><time>2026-04-02T05:34:50Z</time></trkpt><trkpt lat="43.11674667918975" lon="1.209425388344773"><ele>515.0</ele><time>2026-04-02T05:34:51Z</time></trkpt><trkpt lat="43.11684534963753" lon="1.2093904871065062"><ele>516.25</ele><time>2026-04-02T05:34:52Z</time></trkpt><trkpt lat="43.116970492078984" lon="1.209334003138696"><ele>517.5</ele><time>2026-04-02T05:34:53Z</time></trkpt><trkpt lat="43.11710782236565" lon="1.2092796813984452"><ele>518.75</ele><time>2026-04-02T05:34:54Z</time></trkpt><trkpt lat="43.11725801405913" lon="1.2092251812350368"><ele>520.0</ele><time>2026-04-02T05:34:55Z</time></trkpt><trkpt lat="43.11741401280803" lon="1.2091739429923807"><ele>520.0</ele><time>2026-04-02T05:34:56Z</time></trkpt><trkpt lat="43.11757127233139" lon="1.209120776598144"><ele>520.0</ele><time>2026-04-02T05:34:57Z</time></trkpt><trkpt lat="43.11772585698773" lon="1.2090673825728555"><ele>520.0</ele><time>2026-04-02T05:34:58Z</time></trkpt><trkpt lat="43.11787930308917" lon="1.209008097681951"><ele>519.6666666666667</ele><time>2026-04-02T05:34:59Z</time></trkpt><trkpt lat="43.118026368630936" lon="1.2089489815252379"><ele>519.3333333333334</ele><time>2026-04-02T05:35:00Z</time></trkpt><trkpt lat="43.11818568141604" lon="1.2088802836783383"><ele>519.0</ele><time>2026-04-02T05:35:01Z</time></trkpt><trkpt lat="43.11835154588358" lon="1.2087937087023133"><ele>517.6666666666666</ele><time>2026-04-02T05:35:02Z</time></trkpt><trkpt lat="43.118521032427296" lon="1.2087066933635926"><ele>516.3333333333333</ele><time>2026-04-02T05:35:03Z</time></trkpt><trkpt lat="43.11868044307533" lon="1.2086126291678225"><ele>515.0</ele><time>2026-04-02T05:35:04Z</time></trkpt><trkpt lat="43.118838158417006" lon="1.2085064987350447"><ele>515.0</ele><time>2026-04-02T05:35:05Z</time></trkpt><trkpt lat="43.11899217046675" lon="1.2083864439713359"><ele>515.0</ele><time>2026-04-02T05:35:06Z</time></trkpt><trkpt lat="43.11913824716097" lon="1.2082537662887702"><ele>515.0</ele><time>2026-04-02T05:35:07Z</time></trkpt><trkpt lat="43.11927577034812" lon="1.2081106113493156"><ele>514.0</ele><time>2026-04-02T05:35:08Z</time></trkpt><trkpt lat="43.11940565712126" lon="1.2079544378577507"><ele>513.0</ele><time>2026-04-02T05:35:09Z</time></trkpt><trkpt lat="43.11953424832513" lon="1.207799229843022"><ele>512.0</ele><time>2026-04-02T05:35:10Z</time></trkpt><trkpt lat="43.11965876232598" lon="1.207650474634993"><ele>512.0</ele><time>2026-04-02T05:35:11Z</time></trkpt><trkpt lat="43.11978726262301" lon="1.2075093166087312"><ele>512.0</ele><time>2026-04-02T05:35:12Z</time></trkpt><trkpt lat="43.11992135522795" lon="1.207379181406226"><ele>512.0</ele><time>2026-04-02T05:35:13Z</time></trkpt><trkpt lat="43.12006280652029" lon="1.207245154025007"><ele>510.66666666666663</ele><time>2026-04-02T05:35:14Z</time></trkpt><trkpt lat="43.120207847234305" lon="1.2071172257966134"><ele>509.33333333333337</ele><time>2026-04-02T05:35:15Z</time></trkpt><trkpt lat="43.120349307430274" lon="1.2069880390613679"><ele>508.0</ele><time>2026-04-02T05:35:16Z</time></trkpt><trkpt lat="43.120493169908826" lon="1.2068655152910701"><ele>508.0</ele><time>2026-04-02T05:35:17Z</time></trkpt><trkpt lat="43.12065476481501" lon="1.2067378780904137"><ele>508.0</ele><time>2026-04-02T05:35:18Z</time></trkpt><trkpt lat="43.12082528501717" lon="1.2066056480250222"><ele>508.0</ele><time>2026-04-02T05:35:19Z</time></trkpt><trkpt lat="43.1209966611643" lon="1.206472031656369"><ele>508.33333333333337</ele><time>2026-04-02T05:35:20Z</time></trkpt><trkpt lat="43.121159757260415" lon="1.2063361459308468"><ele>508.66666666666663</ele><time>2026-04-02T05:35:21Z</time></trkpt><trkpt lat="43.121323053040214" lon="1.2062030764795726"><ele>509.0</ele><time>2026-04-02T05:35:22Z</time></trkpt><trkpt lat="43.12148674142615" lon="1.2060762719806453"><ele>510.66666666666663</ele><time>2026-04-02T05:35:23Z</time></trkpt><trkpt lat="43.12165358372278" lon="1.2059509914673618"><ele>512.3333333333334</ele><time>2026-04-02T05:35:24Z</time></trkpt><trkpt lat="43.1218208183041" lon="1.2058270861503915"><ele>514.0</ele><time>2026-04-02T05:35:25Z</time></trkpt><trkpt lat="43.12198817723835" lon="1.2057065726220066"><ele>513.3333333333334</ele><time>2026-04-02T05:35:26Z</time></trkpt><trkpt lat="43.12215593766572" lon="1.2055970180826507"><ele>512.6666666666666</ele><time>2026-04-02T05:35:27Z</time></trkpt><trkpt lat="43.12232444524505" lon="1.2054986756687738"><ele>512.0</ele><time>2026-04-02T05:35:28Z</time></trkpt><trkpt lat="43.12248498083247" lon="1.205400220768155"><ele>514.3333333333333</ele><time>2026-04-02T05:35:29Z</time></trkpt><trkpt lat="43.12263580459843" lon="1.2053007208755093"><ele>516.6666666666666</ele><time>2026-04-02T05:35:30Z</time></trkpt><trkpt lat="43.12277760980699" lon="1.2052198427095675"><ele>519.0</ele><time>2026-04-02T05:35:31Z</time></trkpt><trkpt lat="43.12293127578812" lon="1.2051523932789812"><ele>519.0</ele><time>2026-04-02T05:35:32Z</time></trkpt><trkpt lat="43.123111044495296" lon="1.2050939170892006"><ele>519.0</ele><time>2026-04-02T05:35:33Z</time></trkpt><trkpt lat="43.12331382729303" lon="1.205057317623458"><ele>519.0</ele><time>2026-04-02T05:35:34Z</time></trkpt><trkpt lat="43.12352450953947" lon="1.205038557655503"><ele>518.3333333333334</ele><time>2026-04-02T05:35:35Z</time></trkpt><trkpt lat="43.123732698387045" lon="1.2050132480129125"><ele>517.6666666666667</ele><time>2026-04-02T05:35:36Z</time></trkpt><trkpt lat="43.123932254598394" lon="1.2049817958906133"><ele>517.0</ele><time>2026-04-02T05:35:37Z</time></trkpt><trkpt lat="43.124135147078995" lon="1.2049527577553492"><ele>516.3333333333334</ele><time>2026-04-02T05:35:38Z</time></trkpt><trkpt lat="43.12433052165617" lon="1.2049256725961413"><ele>515.6666666666666</ele><time>2026-04-02T05:35:39Z</time></trkpt><trkpt lat="43.124512729991615" lon="1.2049045722723273"><ele>515.0</ele><time>2026-04-02T05:35:40Z</time></trkpt><trkpt lat="43.124684316952475" lon="1.2048958459736572"><ele>515.0</ele><time>2026-04-02T05:35:41Z</time></trkpt><trkpt lat="43.124833162324435" lon="1.2048935627487105"><ele>515.0</ele><time>2026-04-02T05:35:42Z</time></trkpt><trkpt lat="43.12497716339864" lon="1.2048933867624703"><ele>515.0</ele><time>2026-04-02T05:35:43Z</time></trkpt><trkpt lat="43.125113592871564" lon="1.2049356139860523"><ele>515.0</ele><time>2026-04-02T05:35:44Z</time></trkpt><trkpt lat="43.12525775526126" lon="1.2049510162625119"><ele>514.3333333333333</ele><time>2026-04-02T05:35:45Z</time></trkpt><trkpt lat="43.12541584425942" lon="1.205005173521014"><ele>513.6666666666666</ele><time>2026-04-02T05:35:46Z</time></trkpt><trkpt lat="43.12557435485457" lon="1.2050388990602021"><ele>513.0</ele><time>2026-04-02T05:35:47Z</time></trkpt><trkpt lat="43.12572101698081" lon="1.2050825379456198"><ele>512.6</ele><time>2026-04-02T05:35:48Z</time></trkpt><trkpt lat="43.12585228770255" lon="1.2050836359586605"><ele>512.1999999999999</ele><time>2026-04-02T05:35:49Z</time></trkpt><trkpt lat="43.125966661778506" lon="1.205050221535557"><ele>511.8</ele><time>2026-04-02T05:35:50Z</time></trkpt><trkpt lat="43.126071887781094" lon="1.2050464387912185"><ele>511.4</ele><time>2026-04-02T05:35:51Z</time></trkpt><trkpt lat="43.1261353076272" lon="1.2050681085782693"><ele>511.0</ele><time>2026-04-02T05:35:52Z</time></trkpt><trkpt lat="43.12620651370031" lon="1.2052215556758454"><ele>511.0</ele><time>2026-04-02T05:35:54Z</time></trkpt><trkpt lat="43.126180063945476" lon="1.2053483346260179"><ele>511.0</ele><time>2026-04-02T05:35:55Z</time></trkpt><trkpt lat="43.12617756214393" lon="1.2055140253794874"><ele>511.0</ele><time>2026-04-02T05:35:56Z</time></trkpt><trkpt lat="43.12617717497879" lon="1.2057077248593522"><ele>511.0</ele><time>2026-04-02T05:35:57Z</time></trkpt><trkpt lat="43.126183835852075" lon="1.205924862862725"><ele>511.6666666666667</ele><time>2026-04-02T05:35:58Z</time></trkpt><trkpt lat="43.12617910102425" lon="1.206144809543302"><ele>512.3333333333334</ele><time>2026-04-02T05:35:59Z</time></trkpt><trkpt lat="43.126184242144575" lon="1.2063667881155151"><ele>513.0</ele><time>2026-04-02T05:36:00Z</time></trkpt><trkpt lat="43.12619124728871" lon="1.2065874196587714"><ele>513.3333333333334</ele><time>2026-04-02T05:36:01Z</time></trkpt><trkpt lat="43.126195334476556" lon="1.2068176191116748"><ele>513.6666666666667</ele><time>2026-04-02T05:36:02Z</time></trkpt><trkpt lat="43.126200045961994" lon="1.2070506306717492"><ele>514.0</ele><time>2026-04-02T05:36:03Z</time></trkpt><trkpt lat="43.12621310649147" lon="1.207281673312695"><ele>513.3333333333334</ele><time>2026-04-02T05:36:04Z</time></trkpt><trkpt lat="43.126237985282515" lon="1.2075135835858752"><ele>512.6666666666666</ele><time>2026-04-02T05:36:05Z</time></trkpt><trkpt lat="43.126283110622026" lon="1.2077457982067832"><ele>512.0</ele><time>2026-04-02T05:36:06Z</time></trkpt><trkpt lat="43.126347489317155" lon="1.2079666146895833"><ele>512.6666666666666</ele><time>2026-04-02T05:36:07Z</time></trkpt><trkpt lat="43.12642711144908" lon="1.2081837217833307"><ele>513.3333333333334</ele><time>2026-04-02T05:36:08Z</time></trkpt><trkpt lat="43.126509098258595" lon="1.208391893837278"><ele>514.0</ele><time>2026-04-02T05:36:09Z</time></trkpt><trkpt lat="43.12658444463824" lon="1.208605548515145"><ele>514.0</ele><time>2026-04-02T05:36:10Z</time></trkpt><trkpt lat="43.12665353362086" lon="1.2088115468790697"><ele>514.0</ele><time>2026-04-02T05:36:11Z</time></trkpt><trkpt lat="43.126718131176474" lon="1.209005404467112"><ele>514.0</ele><time>2026-04-02T05:36:12Z</time></trkpt><trkpt lat="43.12675239552088" lon="1.2092115228134193"><ele>514.0</ele><time>2026-04-02T05:36:13Z</time></trkpt><trkpt lat="43.1267802441444" lon="1.209426942371217"><ele>514.0</ele><time>2026-04-02T05:36:14Z</time></trkpt><trkpt lat="43.126798166806886" lon="1.2096547873812409"><ele>514.0</ele><time>2026-04-02T05:36:15Z</time></trkpt><trkpt lat="43.12682962134792" lon="1.209884178828861"><ele>513.6666666666667</ele><time>2026-04-02T05:36:16Z</time></trkpt><trkpt lat="43.12682953763176" lon="1.2101148737531056"><ele>513.3333333333334</ele><time>2026-04-02T05:36:17Z</time></trkpt><trkpt lat="43.1268469573007" lon="1.210338228857624"><ele>513.0</ele><time>2026-04-02T05:36:18Z</time></trkpt><trkpt lat="43.126868030296386" lon="1.2105321910217706"><ele>511.59999999999997</ele><time>2026-04-02T05:36:19Z</time></trkpt><trkpt lat="43.126881174332276" lon="1.210694321562829"><ele>510.19999999999993</ele><time>2026-04-02T05:36:20Z</time></trkpt><trkpt lat="43.12688555978335" lon="1.2108469685630459"><ele>508.8</ele><time>2026-04-02T05:36:21Z</time></trkpt><trkpt lat="43.126894769285315" lon="1.2109896610224862"><ele>507.4</ele><time>2026-04-02T05:36:22Z</time></trkpt><trkpt lat="43.126905242241044" lon="1.2111071411917584"><ele>506.0</ele><time>2026-04-02T05:36:23Z</time></trkpt><trkpt lat="43.12691449973004" lon="1.211205099892294"><ele>505.99999999999994</ele><time>2026-04-02T05:36:24Z</time></trkpt><trkpt lat="43.12692720676339" lon="1.21128984876769"><ele>506.0</ele><time>2026-04-02T05:36:25Z</time></trkpt><trkpt lat="43.12695116304881" lon="1.2114076871138841"><ele>506.0</ele><time>2026-04-02T05:36:27Z</time></trkpt><trkpt lat="43.12698803516777" lon="1.2114821530480198"><ele>506.0</ele><time>2026-04-02T05:36:30Z</time></trkpt><trkpt lat="43.127050324829526" lon="1.211603884205138"><ele>505.99999999999994</ele><time>2026-04-02T05:38:06Z</time></trkpt><trkpt lat="43.127110333680044" lon="1.2117031423834508"><ele>506.0</ele><time>2026-04-02T05:38:07Z</time></trkpt><trkpt lat="43.12719446880159" lon="1.2118030066540797"><ele>503.75</ele><time>2026-04-02T05:38:08Z</time></trkpt><trkpt lat="43.1272847841706" lon="1.2119193359745606"><ele>501.5</ele><time>2026-04-02T05:38:09Z</time></trkpt><trkpt lat="43.127371297656644" lon="1.212017571295045"><ele>499.25</ele><time>2026-04-02T05:38:10Z</time></trkpt><trkpt lat="43.12747416036313" lon="1.2121083925857299"><ele>497.0</ele><time>2026-04-02T05:38:11Z</time></trkpt><trkpt lat="43.12760556189088" lon="1.2121970124428334"><ele>496.66666666666663</ele><time>2026-04-02T05:38:12Z</time></trkpt><trkpt lat="43.127763280076344" lon="1.2122888051296958"><ele>496.33333333333337</ele><time>2026-04-02T05:38:13Z</time></trkpt><trkpt lat="43.12792660274641" lon="1.2123757245395825"><ele>496.0</ele><time>2026-04-02T05:38:14Z</time></trkpt><trkpt lat="43.12810665950962" lon="1.2124694351318852"><ele>493.6666666666667</ele><time>2026-04-02T05:38:15Z</time></trkpt><trkpt lat="43.12828504972775" lon="1.2125703242767005"><ele>491.33333333333337</ele><time>2026-04-02T05:38:16Z</time></trkpt><trkpt lat="43.12846649031044" lon="1.2126735109264126"><ele>489.0</ele><time>2026-04-02T05:38:17Z</time></trkpt><trkpt lat="43.12864505795427" lon="1.2127801192660619"><ele>489.0</ele><time>2026-04-02T05:38:18Z</time></trkpt><trkpt lat="43.12881948111604" lon="1.212883923375456"><ele>489.0</ele><time>2026-04-02T05:38:19Z</time></trkpt><trkpt lat="43.12898894177112" lon="1.2129872526182643"><ele>489.0</ele><time>2026-04-02T05:38:20Z</time></trkpt><trkpt lat="43.12915103872277" lon="1.2130928020275815"><ele>492.0</ele><time>2026-04-02T05:38:21Z</time></trkpt><trkpt lat="43.129302265902965" lon="1.2131957358161842"><ele>495.0</ele><time>2026-04-02T05:38:22Z</time></trkpt><trkpt lat="43.12943135421882" lon="1.213321442846994"><ele>498.0</ele><time>2026-04-02T05:38:23Z</time></trkpt><trkpt lat="43.12955364352367" lon="1.213426592836539"><ele>498.0</ele><time>2026-04-02T05:38:24Z</time></trkpt><trkpt lat="43.1296547244285" lon="1.2135553183445842"><ele>498.0</ele><time>2026-04-02T05:38:25Z</time></trkpt><trkpt lat="43.12973007228113" lon="1.2137415859382379"><ele>498.0</ele><time>2026-04-02T05:38:26Z</time></trkpt><trkpt lat="43.12980769145815" lon="1.2139407900829002"><ele>499.33333333333337</ele><time>2026-04-02T05:38:27Z</time></trkpt><trkpt lat="43.12990905655332" lon="1.2141528288125203"><ele>500.6666666666667</ele><time>2026-04-02T05:38:28Z</time></trkpt><trkpt lat="43.13000959886227" lon="1.214371983791693"><ele>502.0</ele><time>2026-04-02T05:38:29Z</time></trkpt><trkpt lat="43.130119823751606" lon="1.2145635191528406"><ele>502.0</ele><time>2026-04-02T05:38:30Z</time></trkpt><trkpt lat="43.13022927105269" lon="1.2147361382770123"><ele>502.0</ele><time>2026-04-02T05:38:31Z</time></trkpt><trkpt lat="43.13034314290158" lon="1.2149132312414432"><ele>502.0</ele><time>2026-04-02T05:38:32Z</time></trkpt><trkpt lat="43.13046553473223" lon="1.215096279547914"><ele>500.33333333333337</ele><time>2026-04-02T05:38:33Z</time></trkpt><trkpt lat="43.13059353808223" lon="1.215282794222534"><ele>498.66666666666663</ele><time>2026-04-02T05:38:34Z</time></trkpt><trkpt lat="43.13071584390859" lon="1.2154685318309537"><ele>497.0</ele><time>2026-04-02T05:38:35Z</time></trkpt><trkpt lat="43.13083432708773" lon="1.215648815699699"><ele>494.0</ele><time>2026-04-02T05:38:36Z</time></trkpt><trkpt lat="43.13095144832936" lon="1.2158286032940617"><ele>491.0</ele><time>2026-04-02T05:38:37Z</time></trkpt><trkpt lat="43.13106314667555" lon="1.2160249494389979"><ele>488.0</ele><time>2026-04-02T05:38:38Z</time></trkpt><trkpt lat="43.131168157945964" lon="1.216244628443997"><ele>488.0</ele><time>2026-04-02T05:38:39Z</time></trkpt><trkpt lat="43.13126389545359" lon="1.2164796326380258"><ele>488.0</ele><time>2026-04-02T05:38:40Z</time></trkpt><trkpt lat="43.131331923211285" lon="1.2167401205819193"><ele>488.0</ele><time>2026-04-02T05:38:41Z</time></trkpt><trkpt lat="43.13140206223198" lon="1.2169489091981929"><ele>485.3333333333333</ele><time>2026-04-02T05:38:42Z</time></trkpt><trkpt lat="43.131426237479374" lon="1.2171103262624898"><ele>482.66666666666663</ele><time>2026-04-02T05:38:43Z</time></trkpt><trkpt lat="43.13146776417402" lon="1.2172750391306673"><ele>480.0</ele><time>2026-04-02T05:38:44Z</time></trkpt><trkpt lat="43.131383926779264" lon="1.2175327747155553"><ele>477.66666666666663</ele><time>2026-04-02T05:38:45Z</time></trkpt><trkpt lat="43.131379960055746" lon="1.2178023961070716"><ele>475.3333333333333</ele><time>2026-04-02T05:38:46Z</time></trkpt><trkpt lat="43.13135972803456" lon="1.2180913994577014"><ele>473.0</ele><time>2026-04-02T05:38:47Z</time></trkpt><trkpt lat="43.13134540516356" lon="1.2183769780683618"><ele>470.66666666666663</ele><time>2026-04-02T05:38:48Z</time></trkpt><trkpt lat="43.13133215471724" lon="1.2186542117123962"><ele>468.33333333333337</ele><time>2026-04-02T05:38:49Z</time></trkpt><trkpt lat="43.13131951089543" lon="1.218925728229548"><ele>466.0</ele><time>2026-04-02T05:38:50Z</time></trkpt><trkpt lat="43.13130495288288" lon="1.219189436391885"><ele>465.0</ele><time>2026-04-02T05:38:51Z</time></trkpt><trkpt lat="43.1312876867563" lon="1.2194448685449157"><ele>464.0</ele><time>2026-04-02T05:38:52Z</time></trkpt><trkpt lat="43.13126956723656" lon="1.2196888996276367"><ele>463.0</ele><time>2026-04-02T05:38:53Z</time></trkpt><trkpt lat="43.13125854738565" lon="1.2199131617368077"><ele>462.25</ele><time>2026-04-02T05:38:54Z</time></trkpt><trkpt lat="43.13125251685974" lon="1.2200902317406237"><ele>461.5</ele><time>2026-04-02T05:38:55Z</time></trkpt><trkpt lat="43.131262114196055" lon="1.2202281956839693"><ele>460.75</ele><time>2026-04-02T05:38:56Z</time></trkpt><trkpt lat="43.13131671651439" lon="1.2203505917945063"><ele>460.0</ele><time>2026-04-02T05:38:57Z</time></trkpt><trkpt lat="43.13142464154079" lon="1.2204365001597195"><ele>459.0</ele><time>2026-04-02T05:38:58Z</time></trkpt><trkpt lat="43.13156410108511" lon="1.2205009006491374"><ele>458.0</ele><time>2026-04-02T05:38:59Z</time></trkpt><trkpt lat="43.13171004514546" lon="1.220580179521905"><ele>457.0</ele><time>2026-04-02T05:39:00Z</time></trkpt><trkpt lat="43.131860885158154" lon="1.2206853502482624"><ele>457.0</ele><time>2026-04-02T05:39:01Z</time></trkpt><trkpt lat="43.1320114220097" lon="1.2208080991934938"><ele>457.0</ele><time>2026-04-02T05:39:02Z</time></trkpt><trkpt lat="43.13215397550214" lon="1.220951111025345"><ele>457.0</ele><time>2026-04-02T05:39:03Z</time></trkpt><trkpt lat="43.132287555483146" lon="1.2210957665128466"><ele>459.33333333333337</ele><time>2026-04-02T05:39:04Z</time></trkpt><trkpt lat="43.13242278950037" lon="1.2212255255851676"><ele>461.66666666666663</ele><time>2026-04-02T05:39:05Z</time></trkpt><trkpt lat="43.13257336039025" lon="1.2213136527308313"><ele>464.0</ele><time>2026-04-02T05:39:06Z</time></trkpt><trkpt lat="43.1327320417971" lon="1.2213701857989276"><ele>464.0</ele><time>2026-04-02T05:39:07Z</time></trkpt><trkpt lat="43.13287813202635" lon="1.2214370548126172"><ele>464.0</ele><time>2026-04-02T05:39:08Z</time></trkpt><trkpt lat="43.13301347607935" lon="1.2215229349275358"><ele>464.0</ele><time>2026-04-02T05:39:09Z</time></trkpt><trkpt lat="43.133124926240846" lon="1.2216361669353863"><ele>464.0</ele><time>2026-04-02T05:39:10Z</time></trkpt><trkpt lat="43.13321518027191" lon="1.2217758241594698"><ele>463.25</ele><time>2026-04-02T05:39:11Z</time></trkpt><trkpt lat="43.13326291957084" lon="1.221968726266278"><ele>462.5</ele><time>2026-04-02T05:39:12Z</time></trkpt><trkpt lat="43.13332438353504" lon="1.2221564149344153"><ele>461.75</ele><time>2026-04-02T05:39:13Z</time></trkpt><trkpt lat="43.13334852754549" lon="1.2223484029410165"><ele>461.0</ele><time>2026-04-02T05:39:14Z</time></trkpt><trkpt lat="43.13336468776833" lon="1.2225296288862566"><ele>459.5</ele><time>2026-04-02T05:39:15Z</time></trkpt><trkpt lat="43.133364692529184" lon="1.2227118649376791"><ele>458.0</ele><time>2026-04-02T05:39:16Z</time></trkpt><trkpt lat="43.13335296474155" lon="1.2229079239710379"><ele>456.5</ele><time>2026-04-02T05:39:17Z</time></trkpt><trkpt lat="43.13334085253419" lon="1.2231221414638906"><ele>455.0</ele><time>2026-04-02T05:39:18Z</time></trkpt><trkpt lat="43.133333039621874" lon="1.2233476087317723"><ele>453.0</ele><time>2026-04-02T05:39:19Z</time></trkpt><trkpt lat="43.13332197768469" lon="1.2235748805773419"><ele>451.0</ele><time>2026-04-02T05:39:20Z</time></trkpt><trkpt lat="43.13331008017236" lon="1.2237880652451671"><ele>449.0</ele><time>2026-04-02T05:39:21Z</time></trkpt><trkpt lat="43.13329910941843" lon="1.2239912025227626"><ele>448.5</ele><time>2026-04-02T05:39:22Z</time></trkpt><trkpt lat="43.13329057713391" lon="1.2241789974182837"><ele>448.0</ele><time>2026-04-02T05:39:23Z</time></trkpt><trkpt lat="43.13330193844846" lon="1.2243601973350615"><ele>447.5</ele><time>2026-04-02T05:39:24Z</time></trkpt><trkpt lat="43.13334866213969" lon="1.224528144501348"><ele>447.0</ele><time>2026-04-02T05:39:25Z</time></trkpt><trkpt lat="43.13343344703802" lon="1.2246686315757778"><ele>447.0</ele><time>2026-04-02T05:39:26Z</time></trkpt><trkpt lat="43.13353315348363" lon="1.2247784088199398"><ele>447.0</ele><time>2026-04-02T05:39:27Z</time></trkpt><trkpt lat="43.133627640545484" lon="1.2249177802346498"><ele>447.0</ele><time>2026-04-02T05:39:28Z</time></trkpt><trkpt lat="43.13366679642548" lon="1.2251129817006645"><ele>447.0</ele><time>2026-04-02T05:39:29Z</time></trkpt><trkpt lat="43.13368949679679" lon="1.2253230499867471"><ele>445.75</ele><time>2026-04-02T05:39:30Z</time></trkpt><trkpt lat="43.133700628689894" lon="1.2255241844410936"><ele>444.5</ele><time>2026-04-02T05:39:31Z</time></trkpt><trkpt lat="43.13371051601996" lon="1.225717383329394"><ele>443.25</ele><time>2026-04-02T05:39:32Z</time></trkpt><trkpt lat="43.133689932745085" lon="1.2259094310139518"><ele>442.0</ele><time>2026-04-02T05:39:33Z</time></trkpt><trkpt lat="43.13365946137651" lon="1.226088810534819"><ele>439.25</ele><time>2026-04-02T05:39:34Z</time></trkpt><trkpt lat="43.1335941281397" lon="1.2262414913826418"><ele>436.5</ele><time>2026-04-02T05:39:35Z</time></trkpt><trkpt lat="43.13353037268249" lon="1.2263873604969158"><ele>433.75</ele><time>2026-04-02T05:39:36Z</time></trkpt><trkpt lat="43.133463973914154" lon="1.2265315411543487"><ele>431.0</ele><time>2026-04-02T05:39:37Z</time></trkpt><trkpt lat="43.13340052875415" lon="1.2266693091145506"><ele>430.5</ele><time>2026-04-02T05:39:38Z</time></trkpt><trkpt lat="43.13334422217609" lon="1.226810280163"><ele>430.0</ele><time>2026-04-02T05:39:39Z</time></trkpt><trkpt lat="43.13328758653569" lon="1.2269468667400538"><ele>429.5</ele><time>2026-04-02T05:39:40Z</time></trkpt><trkpt lat="43.13322736931594" lon="1.2270798806605476"><ele>429.0</ele><time>2026-04-02T05:39:41Z</time></trkpt><trkpt lat="43.13316466238551" lon="1.2272101306820276"><ele>425.0</ele><time>2026-04-02T05:39:42Z</time></trkpt><trkpt lat="43.1331026030418" lon="1.2273422863547194"><ele>421.0</ele><time>2026-04-02T05:39:43Z</time></trkpt><trkpt lat="43.13304365261708" lon="1.2274796961669945"><ele>417.0</ele><time>2026-04-02T05:39:44Z</time></trkpt><trkpt lat="43.13298944032584" lon="1.2276231553098256"><ele>413.0</ele><time>2026-04-02T05:39:45Z</time></trkpt><trkpt lat="43.13294107142384" lon="1.2277713325266744"><ele>413.0</ele><time>2026-04-02T05:39:46Z</time></trkpt><trkpt lat="43.132895892693924" lon="1.2279326527809387"><ele>413.0</ele><time>2026-04-02T05:39:47Z</time></trkpt><trkpt lat="43.132850520729164" lon="1.2281148161695246"><ele>413.0</ele><time>2026-04-02T05:39:48Z</time></trkpt><trkpt lat="43.13281700268584" lon="1.2283105141040274"><ele>413.0</ele><time>2026-04-02T05:39:49Z</time></trkpt><trkpt lat="43.132798289074934" lon="1.2285012501079466"><ele>412.5</ele><time>2026-04-02T05:39:50Z</time></trkpt><trkpt lat="43.13279114594114" lon="1.2286814223201699"><ele>412.0</ele><time>2026-04-02T05:39:51Z</time></trkpt><trkpt lat="43.13280821856227" lon="1.228836657555281"><ele>411.5</ele><time>2026-04-02T05:39:52Z</time></trkpt><trkpt lat="43.13286375208816" lon="1.2289779043491995"><ele>411.0</ele><time>2026-04-02T05:39:53Z</time></trkpt><trkpt lat="43.132958166189596" lon="1.2290748978616857"><ele>411.0</ele><time>2026-04-02T05:39:54Z</time></trkpt><trkpt lat="43.13307103483914" lon="1.2291146099656922"><ele>411.0</ele><time>2026-04-02T05:39:55Z</time></trkpt><trkpt lat="43.133172506528055" lon="1.2291342108270664"><ele>411.0</ele><time>2026-04-02T05:39:56Z</time></trkpt><trkpt lat="43.133238276319" lon="1.2291815822864125"><ele>411.0</ele><time>2026-04-02T05:39:57Z</time></trkpt><trkpt lat="43.13327687383985" lon="1.229274796985271"><ele>411.0</ele><time>2026-04-02T05:39:58Z</time></trkpt><trkpt lat="43.13326608668109" lon="1.229388380375281"><ele>411.0</ele><time>2026-04-02T05:39:59Z</time></trkpt><trkpt lat="43.13318723421445" lon="1.2294780302835917"><ele>411.0</ele><time>2026-04-02T05:40:00Z</time></trkpt><trkpt lat="43.13314894410567" lon="1.2295703440215004"><ele>411.0</ele><time>2026-04-02T05:40:01Z</time></trkpt><trkpt lat="43.133081350618795" lon="1.2296251853759381"><ele>411.0</ele><time>2026-04-02T05:40:02Z</time></trkpt><trkpt lat="43.133030049185706" lon="1.229703112778719"><ele>411.0</ele><time>2026-04-02T05:40:03Z</time></trkpt><trkpt lat="43.132959673273945" lon="1.2297504881361703"><ele>411.0</ele><time>2026-04-02T05:40:04Z</time></trkpt><trkpt lat="43.13287313088167" lon="1.2297758570313273"><ele>411.0</ele><time>2026-04-02T05:40:05Z</time></trkpt><trkpt lat="43.13275781342806" lon="1.229766872186266"><ele>411.0</ele><time>2026-04-02T05:40:06Z</time></trkpt><trkpt lat="43.132625246458666" lon="1.2297148263188968"><ele>411.0</ele><time>2026-04-02T05:40:07Z</time></trkpt><trkpt lat="43.132480292524875" lon="1.2296819714343492"><ele>411.0</ele><time>2026-04-02T05:40:08Z</time></trkpt><trkpt lat="43.13232717493974" lon="1.2296733424907071"><ele>408.75</ele><time>2026-04-02T05:40:09Z</time></trkpt><trkpt lat="43.132174009039446" lon="1.2296430307049218"><ele>406.5</ele><time>2026-04-02T05:40:10Z</time></trkpt><trkpt lat="43.132028854527356" lon="1.2296076303942174"><ele>404.25</ele><time>2026-04-02T05:40:11Z</time></trkpt><trkpt lat="43.13189009137809" lon="1.2295866099669448"><ele>402.0</ele><time>2026-04-02T05:40:12Z</time></trkpt><trkpt lat="43.131758286823455" lon="1.2295586070575912"><ele>402.0</ele><time>2026-04-02T05:40:13Z</time></trkpt><trkpt lat="43.13162907973095" lon="1.2295367850236778"><ele>402.0</ele><time>2026-04-02T05:40:14Z</time></trkpt><trkpt lat="43.13149795133028" lon="1.2295162312796333"><ele>402.0</ele><time>2026-04-02T05:40:15Z</time></trkpt><trkpt lat="43.13136916164766" lon="1.2294922493905232"><ele>402.0</ele><time>2026-04-02T05:40:16Z</time></trkpt><trkpt lat="43.13124285635549" lon="1.2294686432087782"><ele>400.0</ele><time>2026-04-02T05:40:17Z</time></trkpt><trkpt lat="43.131128224192395" lon="1.2294466862464966"><ele>398.0</ele><time>2026-04-02T05:40:18Z</time></trkpt><trkpt lat="43.131031579558694" lon="1.2294321183794619"><ele>396.0</ele><time>2026-04-02T05:40:19Z</time></trkpt><trkpt lat="43.13094556939047" lon="1.2294416896599143"><ele>394.0</ele><time>2026-04-02T05:40:20Z</time></trkpt><trkpt lat="43.130871285206716" lon="1.2294958480713987"><ele>392.0</ele><time>2026-04-02T05:40:21Z</time></trkpt><trkpt lat="43.13081742006967" lon="1.2296096057312698"><ele>392.0</ele><time>2026-04-02T05:40:22Z</time></trkpt><trkpt lat="43.13081527739557" lon="1.229742401467723"><ele>392.0</ele><time>2026-04-02T05:40:23Z</time></trkpt><trkpt lat="43.130847303098946" lon="1.2298683707705114"><ele>392.0</ele><time>2026-04-02T05:40:24Z</time></trkpt><trkpt lat="43.13091512859551" lon="1.2299972956553589"><ele>392.0</ele><time>2026-04-02T05:40:25Z</time></trkpt><trkpt lat="43.131002067702504" lon="1.230152980481602"><ele>390.5</ele><time>2026-04-02T05:40:26Z</time></trkpt><trkpt lat="43.13110025883991" lon="1.2302985068011694"><ele>389.0</ele><time>2026-04-02T05:40:27Z</time></trkpt><trkpt lat="43.13120834087142" lon="1.2304324095278172"><ele>387.5</ele><time>2026-04-02T05:40:28Z</time></trkpt><trkpt lat="43.131327964780574" lon="1.2305540519785159"><ele>386.0</ele><time>2026-04-02T05:40:29Z</time></trkpt><trkpt lat="43.13145145647321" lon="1.2306776790654088"><ele>384.5</ele><time>2026-04-02T05:40:30Z</time></trkpt><trkpt lat="43.1315771898657" lon="1.2307960283648764"><ele>383.0</ele><time>2026-04-02T05:40:31Z</time></trkpt><trkpt lat="43.131696727524705" lon="1.2309088752892112"><ele>381.5</ele><time>2026-04-02T05:40:32Z</time></trkpt><trkpt lat="43.13180745246485" lon="1.2310296172541295"><ele>380.0</ele><time>2026-04-02T05:40:33Z</time></trkpt><trkpt lat="43.1319052638173" lon="1.2311571342779979"><ele>380.0</ele><time>2026-04-02T05:40:34Z</time></trkpt><trkpt lat="43.13196798729122" lon="1.2313221189449328"><ele>380.0</ele><time>2026-04-02T05:40:35Z</time></trkpt><trkpt lat="43.13198338332026" lon="1.2315012621646846"><ele>380.0</ele><time>2026-04-02T05:40:36Z</time></trkpt><trkpt lat="43.13199367618024" lon="1.2316808475850205"><ele>380.0</ele><time>2026-04-02T05:40:37Z</time></trkpt><trkpt lat="43.13197448923537" lon="1.2318962367587467"><ele>376.33333333333337</ele><time>2026-04-02T05:40:38Z</time></trkpt><trkpt lat="43.13197179150917" lon="1.232142778233385"><ele>372.6666666666667</ele><time>2026-04-02T05:40:39Z</time></trkpt><trkpt lat="43.131959787327084" lon="1.2323991523360815"><ele>369.0</ele><time>2026-04-02T05:40:40Z</time></trkpt><trkpt lat="43.1319542177833" lon="1.2326579018641086"><ele>366.3333333333333</ele><time>2026-04-02T05:40:41Z</time></trkpt><trkpt lat="43.13194912005891" lon="1.2329289482396493"><ele>363.66666666666663</ele><time>2026-04-02T05:40:42Z</time></trkpt><trkpt lat="43.131947737047334" lon="1.2332019663982856"><ele>361.0</ele><time>2026-04-02T05:40:43Z</time></trkpt><trkpt lat="43.13195492238969" lon="1.2334768235937583"><ele>359.66666666666663</ele><time>2026-04-02T05:40:44Z</time></trkpt><trkpt lat="43.13197406750209" lon="1.2337496203282428"><ele>358.3333333333333</ele><time>2026-04-02T05:40:45Z</time></trkpt><trkpt lat="43.132000280745714" lon="1.2340256785102117"><ele>357.0</ele><time>2026-04-02T05:40:46Z</time></trkpt><trkpt lat="43.132010261047135" lon="1.2343026611960741"><ele>355.6666666666667</ele><time>2026-04-02T05:40:47Z</time></trkpt><trkpt lat="43.13201200237949" lon="1.2345725934048573"><ele>354.33333333333337</ele><time>2026-04-02T05:40:48Z</time></trkpt><trkpt lat="43.1320128286444" lon="1.234828173840397"><ele>353.0</ele><time>2026-04-02T05:40:49Z</time></trkpt><trkpt lat="43.13201202663039" lon="1.235074807563815"><ele>351.6666666666667</ele><time>2026-04-02T05:40:50Z</time></trkpt><trkpt lat="43.132007642406734" lon="1.2353158469187677"><ele>350.3333333333333</ele><time>2026-04-02T05:40:51Z</time></trkpt><trkpt lat="43.13200425774193" lon="1.235545004868683"><ele>349.0</ele><time>2026-04-02T05:40:52Z</time></trkpt><trkpt lat="43.13200367290223" lon="1.2357673985369915"><ele>348.25</ele><time>2026-04-02T05:40:53Z</time></trkpt><trkpt lat="43.1320013575825" lon="1.2359812159091303"><ele>347.5</ele><time>2026-04-02T05:40:54Z</time></trkpt><trkpt lat="43.13199539228689" lon="1.2361663297433563"><ele>346.75</ele><time>2026-04-02T05:40:55Z</time></trkpt><trkpt lat="43.13199151710278" lon="1.2363412193194445"><ele>346.0</ele><time>2026-04-02T05:40:56Z</time></trkpt><trkpt lat="43.132012204748136" lon="1.236510337174781"><ele>345.3333333333333</ele><time>2026-04-02T05:40:57Z</time></trkpt><trkpt lat="43.13207263392016" lon="1.2366911387236141"><ele>344.6666666666667</ele><time>2026-04-02T05:40:58Z</time></trkpt><trkpt lat="43.13216325701389" lon="1.236892502602185"><ele>344.0</ele><time>2026-04-02T05:40:59Z</time></trkpt><trkpt lat="43.132254848740665" lon="1.2371109908151086"><ele>343.0</ele><time>2026-04-02T05:41:00Z</time></trkpt><trkpt lat="43.13230495244047" lon="1.2373388689119906"><ele>342.0</ele><time>2026-04-02T05:41:01Z</time></trkpt><trkpt lat="43.13232829042363" lon="1.2375674326513442"><ele>341.0</ele><time>2026-04-02T05:41:02Z</time></trkpt><trkpt lat="43.13232357218085" lon="1.2378051638974366"><ele>341.0</ele><time>2026-04-02T05:41:03Z</time></trkpt><trkpt lat="43.132311039324506" lon="1.2380459017051058"><ele>341.0</ele><time>2026-04-02T05:41:04Z</time></trkpt><trkpt lat="43.1323097590175" lon="1.238297623841039"><ele>341.0</ele><time>2026-04-02T05:41:05Z</time></trkpt><trkpt lat="43.13229377399685" lon="1.2385486172829776"><ele>340.0</ele><time>2026-04-02T05:41:06Z</time></trkpt><trkpt lat="43.13228763761938" lon="1.2388050714332948"><ele>339.0</ele><time>2026-04-02T05:41:07Z</time></trkpt><trkpt lat="43.132300730875784" lon="1.2390616168145525"><ele>338.0</ele><time>2026-04-02T05:41:08Z</time></trkpt><trkpt lat="43.13232617757269" lon="1.2393195022044727"><ele>337.0</ele><time>2026-04-02T05:41:09Z</time></trkpt><trkpt lat="43.13233272243396" lon="1.2395792363534583"><ele>336.0</ele><time>2026-04-02T05:41:10Z</time></trkpt><trkpt lat="43.132351280593845" lon="1.2398377591335896"><ele>335.0</ele><time>2026-04-02T05:41:11Z</time></trkpt><trkpt lat="43.13238927210183" lon="1.240092138869962"><ele>335.0</ele><time>2026-04-02T05:41:12Z</time></trkpt><trkpt lat="43.13241770717544" lon="1.2403345930796847"><ele>335.0</ele><time>2026-04-02T05:41:13Z</time></trkpt><trkpt lat="43.13246516030529" lon="1.2405675465346535"><ele>335.0</ele><time>2026-04-02T05:41:14Z</time></trkpt><trkpt lat="43.13253894741628" lon="1.240795007330143"><ele>333.6666666666667</ele><time>2026-04-02T05:41:15Z</time></trkpt><trkpt lat="43.13260700712793" lon="1.2410373393430465"><ele>332.3333333333333</ele><time>2026-04-02T05:41:16Z</time></trkpt><trkpt lat="43.13268154650097" lon="1.2412779918788248"><ele>331.0</ele><time>2026-04-02T05:41:17Z</time></trkpt><trkpt lat="43.13275683826218" lon="1.2415258112127503"><ele>329.66666666666663</ele><time>2026-04-02T05:41:18Z</time></trkpt><trkpt lat="43.1328422336381" lon="1.2417727614264213"><ele>328.3333333333333</ele><time>2026-04-02T05:41:19Z</time></trkpt><trkpt lat="43.132880786372255" lon="1.2420340409039732"><ele>327.0</ele><time>2026-04-02T05:41:20Z</time></trkpt><trkpt lat="43.13292200822338" lon="1.2422795523709242"><ele>326.25</ele><time>2026-04-02T05:41:21Z</time></trkpt><trkpt lat="43.13295864269917" lon="1.2425066835386784"><ele>325.5</ele><time>2026-04-02T05:41:22Z</time></trkpt><trkpt lat="43.13300464167636" lon="1.2427017670298546"><ele>324.75</ele><time>2026-04-02T05:41:23Z</time></trkpt><trkpt lat="43.1330481915766" lon="1.2428683472330622"><ele>324.0</ele><time>2026-04-02T05:41:24Z</time></trkpt><trkpt lat="43.13312386175777" lon="1.2430104656574539"><ele>323.79999999999995</ele><time>2026-04-02T05:41:25Z</time></trkpt><trkpt lat="43.13322273809553" lon="1.243119486806996"><ele>323.59999999999997</ele><time>2026-04-02T05:41:26Z</time></trkpt><trkpt lat="43.133317059857035" lon="1.2431963753397697"><ele>323.4</ele><time>2026-04-02T05:41:27Z</time></trkpt><trkpt lat="43.133384642727336" lon="1.2432471622786458"><ele>323.2</ele><time>2026-04-02T05:41:28Z</time></trkpt><trkpt lat="43.13341996682057" lon="1.2433224419849438"><ele>323.0</ele><time>2026-04-02T05:41:29Z</time></trkpt><trkpt lat="43.13339984845799" lon="1.2434851560708773"><ele>322.2</ele><time>2026-04-02T05:41:30Z</time></trkpt><trkpt lat="43.13340912712382" lon="1.2436746628684858"><ele>321.4</ele><time>2026-04-02T05:41:31Z</time></trkpt><trkpt lat="43.13343152689923" lon="1.2438297061260055"><ele>320.59999999999997</ele><time>2026-04-02T05:41:32Z</time></trkpt><trkpt lat="43.13342564127585" lon="1.243963249951777"><ele>319.79999999999995</ele><time>2026-04-02T05:41:33Z</time></trkpt><trkpt lat="43.13341837083941" lon="1.2440774894818134"><ele>319.0</ele><time>2026-04-02T05:41:34Z</time></trkpt><trkpt lat="43.13334869511042" lon="1.244170481262494"><ele>318.59999999999997</ele><time>2026-04-02T05:41:35Z</time></trkpt><trkpt lat="43.1332568314792" lon="1.2442251812155427"><ele>318.2</ele><time>2026-04-02T05:41:36Z</time></trkpt><trkpt lat="43.133173401929085" lon="1.2442943083099223"><ele>317.79999999999995</ele><time>2026-04-02T05:41:37Z</time></trkpt><trkpt lat="43.133135179019476" lon="1.2444170657131939"><ele>317.4</ele><time>2026-04-02T05:41:38Z</time></trkpt><trkpt lat="43.13311834863172" lon="1.2445927844034552"><ele>317.0</ele><time>2026-04-02T05:41:39Z</time></trkpt><trkpt lat="43.133122151691985" lon="1.2448010558675384"><ele>319.5</ele><time>2026-04-02T05:41:40Z</time></trkpt><trkpt lat="43.13313117939467" lon="1.2450050323891775"><ele>322.0</ele><time>2026-04-02T05:41:41Z</time></trkpt><trkpt lat="43.13311739209833" lon="1.2451965603032746"><ele>324.5</ele><time>2026-04-02T05:41:42Z</time></trkpt><trkpt lat="43.13307674141584" lon="1.2453739640834325"><ele>327.0</ele><time>2026-04-02T05:41:43Z</time></trkpt><trkpt lat="43.13302349112242" lon="1.2455407073671376"><ele>328.25</ele><time>2026-04-02T05:41:44Z</time></trkpt><trkpt lat="43.13295925272807" lon="1.245697897123624"><ele>329.5</ele><time>2026-04-02T05:41:45Z</time></trkpt><trkpt lat="43.132890855419184" lon="1.2458604764812338"><ele>330.75</ele><time>2026-04-02T05:41:46Z</time></trkpt><trkpt lat="43.13282493447112" lon="1.246029548903287"><ele>332.0</ele><time>2026-04-02T05:41:47Z</time></trkpt><trkpt lat="43.132752278889306" lon="1.246204852083111"><ele>332.0</ele><time>2026-04-02T05:41:48Z</time></trkpt><trkpt lat="43.1326731474669" lon="1.246382573907996"><ele>332.0</ele><time>2026-04-02T05:41:49Z</time></trkpt><trkpt lat="43.132587318521814" lon="1.2465676447679792"><ele>332.0</ele><time>2026-04-02T05:41:50Z</time></trkpt><trkpt lat="43.132535757569656" lon="1.2467599083133682"><ele>334.33333333333337</ele><time>2026-04-02T05:41:51Z</time></trkpt><trkpt lat="43.13252778424215" lon="1.2469613253842742"><ele>336.6666666666667</ele><time>2026-04-02T05:41:52Z</time></trkpt><trkpt lat="43.1325557909523" lon="1.24715956045326"><ele>339.0</ele><time>2026-04-02T05:41:53Z</time></trkpt><trkpt lat="43.13261284917044" lon="1.247374852418886"><ele>342.0</ele><time>2026-04-02T05:41:54Z</time></trkpt><trkpt lat="43.13266430365982" lon="1.2475836741077448"><ele>345.0</ele><time>2026-04-02T05:41:55Z</time></trkpt><trkpt lat="43.13271209425007" lon="1.2477812556735193"><ele>348.0</ele><time>2026-04-02T05:41:56Z</time></trkpt><trkpt lat="43.1327499410104" lon="1.247942960737682"><ele>351.0</ele><time>2026-04-02T05:41:57Z</time></trkpt><trkpt lat="43.13276978085454" lon="1.2480826828460347"><ele>352.20000000000005</ele><time>2026-04-02T05:41:58Z</time></trkpt><trkpt lat="43.13276095481536" lon="1.2481946362465932"><ele>353.40000000000003</ele><time>2026-04-02T05:41:59Z</time></trkpt><trkpt lat="43.13273072764498" lon="1.248276299095882"><ele>354.6</ele><time>2026-04-02T05:42:00Z</time></trkpt><trkpt lat="43.13258718832021" lon="1.2482853944972152"><ele>355.8</ele><time>2026-04-02T05:42:02Z</time></trkpt><trkpt lat="43.132498439716485" lon="1.248253429913343"><ele>357.0</ele><time>2026-04-02T05:42:03Z</time></trkpt><trkpt lat="43.13234717975037" lon="1.2482123159415046"><ele>359.8</ele><time>2026-04-02T05:42:04Z</time></trkpt><trkpt lat="43.13223778670857" lon="1.2481987684506695"><ele>362.6</ele><time>2026-04-02T05:42:05Z</time></trkpt><trkpt lat="43.13216590388646" lon="1.2482172253163688"><ele>365.40000000000003</ele><time>2026-04-02T05:42:06Z</time></trkpt><trkpt lat="43.132127595447486" lon="1.248336117815309"><ele>368.20000000000005</ele><time>2026-04-02T05:42:07Z</time></trkpt><trkpt lat="43.132113269559014" lon="1.2484485446048608"><ele>371.0</ele><time>2026-04-02T05:42:08Z</time></trkpt><trkpt lat="43.13210894055806" lon="1.248608081489457"><ele>371.0</ele><time>2026-04-02T05:42:09Z</time></trkpt><trkpt lat="43.1320704377685" lon="1.2487934887198102"><ele>371.0</ele><time>2026-04-02T05:42:10Z</time></trkpt><trkpt lat="43.13201299545121" lon="1.2489778863442402"><ele>371.0</ele><time>2026-04-02T05:42:11Z</time></trkpt><trkpt lat="43.131983614225774" lon="1.2491801410503436"><ele>371.0</ele><time>2026-04-02T05:42:12Z</time></trkpt><trkpt lat="43.131956276033925" lon="1.249362267978943"><ele>368.75</ele><time>2026-04-02T05:42:13Z</time></trkpt><trkpt lat="43.13195805543318" lon="1.2495549976274114"><ele>366.5</ele><time>2026-04-02T05:42:14Z</time></trkpt><trkpt lat="43.131969811474924" lon="1.2497602284220903"><ele>364.25</ele><time>2026-04-02T05:42:15Z</time></trkpt><trkpt lat="43.131979255046176" lon="1.2499703185795923"><ele>362.0</ele><time>2026-04-02T05:42:16Z</time></trkpt><trkpt lat="43.13198517033234" lon="1.2501784004144336"><ele>360.6</ele><time>2026-04-02T05:42:17Z</time></trkpt><trkpt lat="43.13198820327134" lon="1.2503679202769975"><ele>359.20000000000005</ele><time>2026-04-02T05:42:18Z</time></trkpt><trkpt lat="43.13199288100172" lon="1.2505223459665187"><ele>357.8</ele><time>2026-04-02T05:42:19Z</time></trkpt><trkpt lat="43.13198712970053" lon="1.2506462494756414"><ele>356.4</ele><time>2026-04-02T05:42:20Z</time></trkpt><trkpt lat="43.13197196839893" lon="1.2507414843847675"><ele>355.0</ele><time>2026-04-02T05:42:21Z</time></trkpt><trkpt lat="43.13193575179217" lon="1.2508653918108843"><ele>354.5</ele><time>2026-04-02T05:42:23Z</time></trkpt><trkpt lat="43.13190554689141" lon="1.250966198148705"><ele>354.0</ele><time>2026-04-02T05:42:25Z</time></trkpt><trkpt lat="43.131858284125634" lon="1.2511020345333652"><ele>353.5</ele><time>2026-04-02T05:42:54Z</time></trkpt><trkpt lat="43.13181683432422" lon="1.2511986630138945"><ele>353.0</ele><time>2026-04-02T05:42:55Z</time></trkpt><trkpt lat="43.13177337948495" lon="1.2512758974736562"><ele>352.5</ele><time>2026-04-02T05:42:56Z</time></trkpt><trkpt lat="43.13172033235808" lon="1.251368774063256"><ele>352.0</ele><time>2026-04-02T05:42:57Z</time></trkpt><trkpt lat="43.13166455203218" lon="1.2514791498646243"><ele>353.20000000000005</ele><time>2026-04-02T05:42:58Z</time></trkpt><trkpt lat="43.13161185809094" lon="1.251577691424241"><ele>354.4</ele><time>2026-04-02T05:42:59Z</time></trkpt><trkpt lat="43.13155785636467" lon="1.2516804994401476"><ele>355.6</ele><time>2026-04-02T05:43:00Z</time></trkpt><trkpt lat="43.13149215790787" lon="1.2518035216216084"><ele>356.79999999999995</ele><time>2026-04-02T05:43:01Z</time></trkpt><trkpt lat="43.13142192566561" lon="1.2519319538679778"><ele>358.0</ele><time>2026-04-02T05:43:02Z</time></trkpt><trkpt lat="43.13134835361819" lon="1.2520669465270013"><ele>355.75</ele><time>2026-04-02T05:43:03Z</time></trkpt><trkpt lat="43.13127450385015" lon="1.2522057843223942"><ele>353.5</ele><time>2026-04-02T05:43:04Z</time></trkpt><trkpt lat="43.13120083914882" lon="1.2523440039593787"><ele>351.25</ele><time>2026-04-02T05:43:05Z</time></trkpt><trkpt lat="43.1311236176716" lon="1.2524916765891048"><ele>349.0</ele><time>2026-04-02T05:43:06Z</time></trkpt><trkpt lat="43.13104327500317" lon="1.2526449783529905"><ele>349.0</ele><time>2026-04-02T05:43:07Z</time></trkpt><trkpt lat="43.13095605932071" lon="1.2527988347502852"><ele>349.0</ele><time>2026-04-02T05:43:08Z</time></trkpt><trkpt lat="43.130850516745724" lon="1.2529367537922609"><ele>349.0</ele><time>2026-04-02T05:43:09Z</time></trkpt><trkpt lat="43.130734377465146" lon="1.2530581486020567"><ele>349.0</ele><time>2026-04-02T05:43:10Z</time></trkpt><trkpt lat="43.130617589120696" lon="1.2531748983082909"><ele>346.5</ele><time>2026-04-02T05:43:11Z</time></trkpt><trkpt lat="43.13051270051516" lon="1.2533085543802265"><ele>344.0</ele><time>2026-04-02T05:43:12Z</time></trkpt><trkpt lat="43.130417075478846" lon="1.2534593678098627"><ele>341.5</ele><time>2026-04-02T05:43:13Z</time></trkpt><trkpt lat="43.13032668140974" lon="1.253617136987751"><ele>339.0</ele><time>2026-04-02T05:43:14Z</time></trkpt><trkpt lat="43.13024057653278" lon="1.2537747622893853"><ele>339.0</ele><time>2026-04-02T05:43:15Z</time></trkpt><trkpt lat="43.13015565923524" lon="1.2539385320593077"><ele>339.0</ele><time>2026-04-02T05:43:16Z</time></trkpt><trkpt lat="43.13007152323697" lon="1.2541073119044486"><ele>339.0</ele><time>2026-04-02T05:43:17Z</time></trkpt><trkpt lat="43.12998824411136" lon="1.2542752107257364"><ele>339.0</ele><time>2026-04-02T05:43:18Z</time></trkpt><trkpt lat="43.12990126127969" lon="1.2544442493249441"><ele>336.6666666666667</ele><time>2026-04-02T05:43:19Z</time></trkpt><trkpt lat="43.12981112591064" lon="1.2546136555424945"><ele>334.33333333333337</ele><time>2026-04-02T05:43:20Z</time></trkpt><trkpt lat="43.129717701549296" lon="1.2547829777298365"><ele>332.0</ele><time>2026-04-02T05:43:21Z</time></trkpt><trkpt lat="43.12963066283361" lon="1.2549462142424046"><ele>331.75</ele><time>2026-04-02T05:43:22Z</time></trkpt><trkpt lat="43.1295475409394" lon="1.2551077967393325"><ele>331.5</ele><time>2026-04-02T05:43:23Z</time></trkpt><trkpt lat="43.129467321334616" lon="1.2552645583629196"><ele>331.25</ele><time>2026-04-02T05:43:24Z</time></trkpt><trkpt lat="43.1293867230406" lon="1.2554173819895211"><ele>331.0</ele><time>2026-04-02T05:43:25Z</time></trkpt><trkpt lat="43.129308620517996" lon="1.255569186414812"><ele>331.0</ele><time>2026-04-02T05:43:26Z</time></trkpt><trkpt lat="43.12923533310726" lon="1.255722170828109"><ele>331.0</ele><time>2026-04-02T05:43:27Z</time></trkpt><trkpt lat="43.12917737373375" lon="1.2558854022524626"><ele>331.0</ele><time>2026-04-02T05:43:28Z</time></trkpt><trkpt lat="43.129135643259005" lon="1.2560608018739563"><ele>331.0</ele><time>2026-04-02T05:43:29Z</time></trkpt><trkpt lat="43.12908821509663" lon="1.2562415868889951"><ele>329.5</ele><time>2026-04-02T05:43:30Z</time></trkpt><trkpt lat="43.129056322465395" lon="1.256434519084328"><ele>328.0</ele><time>2026-04-02T05:43:31Z</time></trkpt><trkpt lat="43.129039360828166" lon="1.256628062499126"><ele>326.5</ele><time>2026-04-02T05:43:32Z</time></trkpt><trkpt lat="43.12900919646378" lon="1.2568178193050394"><ele>325.0</ele><time>2026-04-02T05:43:33Z</time></trkpt><trkpt lat="43.12898295852493" lon="1.2570080614117074"><ele>325.0</ele><time>2026-04-02T05:43:34Z</time></trkpt><trkpt lat="43.12895369505125" lon="1.2571998232529047"><ele>325.0</ele><time>2026-04-02T05:43:35Z</time></trkpt><trkpt lat="43.12892144676729" lon="1.2573854830094546"><ele>325.0</ele><time>2026-04-02T05:43:36Z</time></trkpt><trkpt lat="43.12889793940414" lon="1.2575651897089104"><ele>325.0</ele><time>2026-04-02T05:43:37Z</time></trkpt><trkpt lat="43.12889229956481" lon="1.2577396891050772"><ele>325.0</ele><time>2026-04-02T05:43:38Z</time></trkpt><trkpt lat="43.12888434498821" lon="1.257919443537111"><ele>325.0</ele><time>2026-04-02T05:43:39Z</time></trkpt><trkpt lat="43.12889652189353" lon="1.2581022785506137"><ele>325.0</ele><time>2026-04-02T05:43:40Z</time></trkpt><trkpt lat="43.12891148526431" lon="1.2582871374708016"><ele>325.0</ele><time>2026-04-02T05:43:41Z</time></trkpt><trkpt lat="43.12892598242279" lon="1.2584759801193852"><ele>324.5</ele><time>2026-04-02T05:43:42Z</time></trkpt><trkpt lat="43.12895662451176" lon="1.2586623641229238"><ele>324.0</ele><time>2026-04-02T05:43:43Z</time></trkpt><trkpt lat="43.12896572045268" lon="1.2588508653454977"><ele>323.5</ele><time>2026-04-02T05:43:44Z</time></trkpt><trkpt lat="43.12897905880825" lon="1.2590453895741847"><ele>323.0</ele><time>2026-04-02T05:43:45Z</time></trkpt><trkpt lat="43.12899171935289" lon="1.2592442161994812"><ele>323.0</ele><time>2026-04-02T05:43:46Z</time></trkpt><trkpt lat="43.12900327031628" lon="1.259449115834017"><ele>323.0</ele><time>2026-04-02T05:43:47Z</time></trkpt><trkpt lat="43.12902060770068" lon="1.2596499050725976"><ele>323.0</ele><time>2026-04-02T05:43:48Z</time></trkpt><trkpt lat="43.12904024085118" lon="1.2598352165975988"><ele>323.0</ele><time>2026-04-02T05:43:49Z</time></trkpt><trkpt lat="43.12905899395247" lon="1.2600179411466115"><ele>322.5</ele><time>2026-04-02T05:43:50Z</time></trkpt><trkpt lat="43.12907394488123" lon="1.2602057129826678"><ele>322.0</ele><time>2026-04-02T05:43:51Z</time></trkpt><trkpt lat="43.129079837131194" lon="1.2603992261238035"><ele>321.5</ele><time>2026-04-02T05:43:52Z</time></trkpt><trkpt lat="43.129068676201996" lon="1.2606012141786969"><ele>321.0</ele><time>2026-04-02T05:43:53Z</time></trkpt><trkpt lat="43.129041840307735" lon="1.2608004734837066"><ele>319.3333333333333</ele><time>2026-04-02T05:43:54Z</time></trkpt><trkpt lat="43.1289671636716" lon="1.2609878062389692"><ele>317.66666666666663</ele><time>2026-04-02T05:43:55Z</time></trkpt><trkpt lat="43.128879043810336" lon="1.261191540939724"><ele>316.0</ele><time>2026-04-02T05:43:56Z</time></trkpt><trkpt lat="43.12879164877226" lon="1.261425398046162"><ele>313.66666666666663</ele><time>2026-04-02T05:43:57Z</time></trkpt><trkpt lat="43.128688540212536" lon="1.261659317294169"><ele>311.3333333333333</ele><time>2026-04-02T05:43:58Z</time></trkpt><trkpt lat="43.128573157529885" lon="1.2619050396637816"><ele>309.0</ele><time>2026-04-02T05:43:59Z</time></trkpt><trkpt lat="43.12850521323097" lon="1.262174599880334"><ele>306.0</ele><time>2026-04-02T05:44:00Z</time></trkpt><trkpt lat="43.128438253436315" lon="1.2624341458689827"><ele>303.0</ele><time>2026-04-02T05:44:01Z</time></trkpt><trkpt lat="43.1283964342992" lon="1.2626823517717567"><ele>300.0</ele><time>2026-04-02T05:44:02Z</time></trkpt><trkpt lat="43.128335507541344" lon="1.262913023012903"><ele>298.6666666666667</ele><time>2026-04-02T05:44:03Z</time></trkpt><trkpt lat="43.12828586122681" lon="1.2631361626864321"><ele>297.33333333333337</ele><time>2026-04-02T05:44:04Z</time></trkpt><trkpt lat="43.128237756750046" lon="1.2633523719372803"><ele>296.0</ele><time>2026-04-02T05:44:05Z</time></trkpt><trkpt lat="43.12819174084908" lon="1.2635604437560435"><ele>296.0</ele><time>2026-04-02T05:44:06Z</time></trkpt><trkpt lat="43.128147096266595" lon="1.2637604851573792"><ele>296.0</ele><time>2026-04-02T05:44:07Z</time></trkpt><trkpt lat="43.12810688253093" lon="1.2639973335120251"><ele>296.0</ele><time>2026-04-02T05:44:08Z</time></trkpt><trkpt lat="43.12804666943916" lon="1.2642206321570553"><ele>295.0</ele><time>2026-04-02T05:44:09Z</time></trkpt><trkpt lat="43.12799159638783" lon="1.2644231607908478"><ele>294.0</ele><time>2026-04-02T05:44:10Z</time></trkpt><trkpt lat="43.12794942333768" lon="1.2645930728010775"><ele>293.0</ele><time>2026-04-02T05:44:11Z</time></trkpt><trkpt lat="43.12791453438955" lon="1.2647186960305972"><ele>292.0</ele><time>2026-04-02T05:44:12Z</time></trkpt><trkpt lat="43.12786801955798" lon="1.2648093948852865"><ele>291.75</ele><time>2026-04-02T05:44:13Z</time></trkpt><trkpt lat="43.127814809495625" lon="1.2649055593765026"><ele>291.5</ele><time>2026-04-02T05:44:15Z</time></trkpt><trkpt lat="43.127777409191424" lon="1.2650683099718019"><ele>291.25</ele><time>2026-04-02T05:44:18Z</time></trkpt><trkpt lat="43.12779263238313" lon="1.2652481467179664"><ele>291.0</ele><time>2026-04-02T05:44:19Z</time></trkpt><trkpt lat="43.12779209092898" lon="1.2654532108565935"><ele>290.6666666666667</ele><time>2026-04-02T05:44:20Z</time></trkpt><trkpt lat="43.12780923368115" lon="1.2656759596495162"><ele>290.33333333333337</ele><time>2026-04-02T05:44:21Z</time></trkpt><trkpt lat="43.12780234244052" lon="1.2659080460223957"><ele>290.0</ele><time>2026-04-02T05:44:22Z</time></trkpt><trkpt lat="43.12778860957608" lon="1.2661023816944665"><ele>290.0</ele><time>2026-04-02T05:44:23Z</time></trkpt><trkpt lat="43.12775721717512" lon="1.2662822037536081"><ele>290.0</ele><time>2026-04-02T05:44:24Z</time></trkpt><trkpt lat="43.12771739326773" lon="1.2664277433046314"><ele>290.0</ele><time>2026-04-02T05:44:25Z</time></trkpt><trkpt lat="43.127679838525566" lon="1.2665444418010907"><ele>290.0</ele><time>2026-04-02T05:44:26Z</time></trkpt><trkpt lat="43.127638617159356" lon="1.2666200365235727"><ele>290.0</ele><time>2026-04-02T05:44:28Z</time></trkpt><trkpt lat="43.127886514161275" lon="1.2667981859711495"><ele>289.5</ele><time>2026-04-02T05:44:32Z</time></trkpt><trkpt lat="43.127968213009346" lon="1.2668835365148645"><ele>289.0</ele><time>2026-04-02T05:44:33Z</time></trkpt><trkpt lat="43.12807050195096" lon="1.2669816205666544"><ele>288.5</ele><time>2026-04-02T05:44:34Z</time></trkpt><trkpt lat="43.128179092256254" lon="1.2670877970153014"><ele>288.0</ele><time>2026-04-02T05:44:35Z</time></trkpt><trkpt lat="43.12830330752994" lon="1.2672118511966444"><ele>287.0</ele><time>2026-04-02T05:44:36Z</time></trkpt><trkpt lat="43.12841144136794" lon="1.2673256373271995"><ele>286.0</ele><time>2026-04-02T05:44:37Z</time></trkpt><trkpt lat="43.12851545675142" lon="1.2674375016270996"><ele>285.0</ele><time>2026-04-02T05:44:38Z</time></trkpt><trkpt lat="43.128613562722045" lon="1.2675472137280601"><ele>284.0</ele><time>2026-04-02T05:44:39Z</time></trkpt><trkpt lat="43.12870423947336" lon="1.2676630059546359"><ele>284.0</ele><time>2026-04-02T05:44:40Z</time></trkpt><trkpt lat="43.128796013085925" lon="1.267761613145681"><ele>284.0</ele><time>2026-04-02T05:44:41Z</time></trkpt><trkpt lat="43.12888323415014" lon="1.2678266174229271"><ele>284.0</ele><time>2026-04-02T05:44:42Z</time></trkpt><trkpt lat="43.12898191680109" lon="1.2678450105494368"><ele>284.0</ele><time>2026-04-02T05:44:43Z</time></trkpt><trkpt lat="43.12907913284544" lon="1.2678156900841582"><ele>284.0</ele><time>2026-04-02T05:44:44Z</time></trkpt><trkpt lat="43.12919542698646" lon="1.2677718690873583"><ele>283.4</ele><time>2026-04-02T05:44:45Z</time></trkpt><trkpt lat="43.12931586729169" lon="1.2677273637798743"><ele>282.79999999999995</ele><time>2026-04-02T05:44:46Z</time></trkpt><trkpt lat="43.12941981944837" lon="1.267701552218228"><ele>282.20000000000005</ele><time>2026-04-02T05:44:47Z</time></trkpt><trkpt lat="43.129517218379306" lon="1.2677021614206225"><ele>281.6</ele><time>2026-04-02T05:44:48Z</time></trkpt><trkpt lat="43.12961589113772" lon="1.2677394958150772"><ele>281.0</ele><time>2026-04-02T05:44:49Z</time></trkpt><trkpt lat="43.12968766113822" lon="1.26783181296179"><ele>281.0</ele><time>2026-04-02T05:44:50Z</time></trkpt><trkpt lat="43.129725142347496" lon="1.2679560368034635"><ele>281.0</ele><time>2026-04-02T05:44:51Z</time></trkpt><trkpt lat="43.1297158145099" lon="1.2681094134349216"><ele>281.0</ele><time>2026-04-02T05:44:52Z</time></trkpt><trkpt lat="43.129721571685025" lon="1.2682851243480902"><ele>281.0</ele><time>2026-04-02T05:44:53Z</time></trkpt><trkpt lat="43.1297356902557" lon="1.2684745871989465"><ele>280.75</ele><time>2026-04-02T05:44:54Z</time></trkpt><trkpt lat="43.12974440051381" lon="1.2686476511126008"><ele>280.5</ele><time>2026-04-02T05:44:55Z</time></trkpt><trkpt lat="43.12976517637959" lon="1.2688270692722605"><ele>280.25</ele><time>2026-04-02T05:44:56Z</time></trkpt><trkpt lat="43.129816598472935" lon="1.2690050635563108"><ele>280.0</ele><time>2026-04-02T05:44:57Z</time></trkpt><trkpt lat="43.12990289988625" lon="1.2691698441015407"><ele>280.0</ele><time>2026-04-02T05:44:58Z</time></trkpt><trkpt lat="43.13001352742512" lon="1.2693169831759583"><ele>280.0</ele><time>2026-04-02T05:44:59Z</time></trkpt><trkpt lat="43.13012982138197" lon="1.2694520552725472"><ele>280.0</ele><time>2026-04-02T05:45:00Z</time></trkpt><trkpt lat="43.130233894988834" lon="1.2695899057661737"><ele>280.0</ele><time>2026-04-02T05:45:01Z</time></trkpt><trkpt lat="43.13033998301153" lon="1.2697508354804017"><ele>280.0</ele><time>2026-04-02T05:45:02Z</time></trkpt><trkpt lat="43.130435853711944" lon="1.2699440867457128"><ele>280.0</ele><time>2026-04-02T05:45:03Z</time></trkpt><trkpt lat="43.13050706801813" lon="1.2701670561578866"><ele>280.0</ele><time>2026-04-02T05:45:04Z</time></trkpt><trkpt lat="43.130556877864215" lon="1.2704097915751318"><ele>280.0</ele><time>2026-04-02T05:45:05Z</time></trkpt><trkpt lat="43.13059052037281" lon="1.2706668220177637"><ele>280.0</ele><time>2026-04-02T05:45:06Z</time></trkpt><trkpt lat="43.13062291656437" lon="1.270929703074329"><ele>280.3333333333333</ele><time>2026-04-02T05:45:07Z</time></trkpt><trkpt lat="43.13066478469136" lon="1.2711971665556427"><ele>280.6666666666667</ele><time>2026-04-02T05:45:08Z</time></trkpt><trkpt lat="43.130710438185474" lon="1.271466319555301"><ele>281.0</ele><time>2026-04-02T05:45:09Z</time></trkpt><trkpt lat="43.13075867237304" lon="1.2717619829423923"><ele>281.0</ele><time>2026-04-02T05:45:10Z</time></trkpt><trkpt lat="43.130800721096996" lon="1.2720534852361134"><ele>281.0</ele><time>2026-04-02T05:45:11Z</time></trkpt><trkpt lat="43.13084210466968" lon="1.2723398095484397"><ele>281.0</ele><time>2026-04-02T05:45:12Z</time></trkpt><trkpt lat="43.13088602663614" lon="1.272625043052838"><ele>280.6666666666667</ele><time>2026-04-02T05:45:13Z</time></trkpt><trkpt lat="43.13093319927392" lon="1.2729110512331352"><ele>280.3333333333333</ele><time>2026-04-02T05:45:14Z</time></trkpt><trkpt lat="43.13097808372925" lon="1.2731968320159768"><ele>280.0</ele><time>2026-04-02T05:45:15Z</time></trkpt><trkpt lat="43.131022485100665" lon="1.2734858875234494"><ele>280.0</ele><time>2026-04-02T05:45:16Z</time></trkpt><trkpt lat="43.13106477587314" lon="1.2737616053386227"><ele>280.0</ele><time>2026-04-02T05:45:17Z</time></trkpt><trkpt lat="43.13110957529802" lon="1.2740274336160327"><ele>280.0</ele><time>2026-04-02T05:45:18Z</time></trkpt><trkpt lat="43.13115712365491" lon="1.2742777870449193"><ele>280.0</ele><time>2026-04-02T05:45:19Z</time></trkpt><trkpt lat="43.13121299600844" lon="1.2744943051674533"><ele>280.0</ele><time>2026-04-02T05:45:20Z</time></trkpt><trkpt lat="43.1312755171512" lon="1.2746891358643448"><ele>280.0</ele><time>2026-04-02T05:45:21Z</time></trkpt><trkpt lat="43.13135194809146" lon="1.2748622116082449"><ele>279.66666666666663</ele><time>2026-04-02T05:45:22Z</time></trkpt><trkpt lat="43.131452723397814" lon="1.2750033192897188"><ele>279.3333333333333</ele><time>2026-04-02T05:45:23Z</time></trkpt><trkpt lat="43.13158435450296" lon="1.2751262765408595"><ele>279.0</ele><time>2026-04-02T05:45:24Z</time></trkpt><trkpt lat="43.13173942780734" lon="1.2752075059382912"><ele>280.3333333333333</ele><time>2026-04-02T05:45:25Z</time></trkpt><trkpt lat="43.13191019050406" lon="1.2752515687867294"><ele>281.66666666666663</ele><time>2026-04-02T05:45:26Z</time></trkpt><trkpt lat="43.1320820663173" lon="1.2752805747879188"><ele>283.0</ele><time>2026-04-02T05:45:27Z</time></trkpt><trkpt lat="43.13227399662553" lon="1.2752524084834833"><ele>284.66666666666663</ele><time>2026-04-02T05:45:28Z</time></trkpt><trkpt lat="43.13248207764023" lon="1.27524503571605"><ele>286.3333333333333</ele><time>2026-04-02T05:45:29Z</time></trkpt><trkpt lat="43.13268701860773" lon="1.2752519949238228"><ele>288.0</ele><time>2026-04-02T05:45:30Z</time></trkpt><trkpt lat="43.13289527703439" lon="1.275281138216918"><ele>288.0</ele><time>2026-04-02T05:45:31Z</time></trkpt><trkpt lat="43.13308960944618" lon="1.275387269892674"><ele>288.0</ele><time>2026-04-02T05:45:32Z</time></trkpt><trkpt lat="43.133285600184465" lon="1.2755153960546899"><ele>288.0</ele><time>2026-04-02T05:45:33Z</time></trkpt><trkpt lat="43.133474968275124" lon="1.2756797754861453"><ele>287.0</ele><time>2026-04-02T05:45:34Z</time></trkpt><trkpt lat="43.13367323891834" lon="1.2758512842310477"><ele>286.0</ele><time>2026-04-02T05:45:35Z</time></trkpt><trkpt lat="43.13386263527389" lon="1.276051526742628"><ele>286.5</ele><time>2026-04-02T05:45:36Z</time></trkpt><trkpt lat="43.13406252306112" lon="1.2762486766577108"><ele>287.0</ele><time>2026-04-02T05:45:37Z</time></trkpt><trkpt lat="43.13426352674227" lon="1.2764571464867642"><ele>284.5</ele><time>2026-04-02T05:45:38Z</time></trkpt><trkpt lat="43.13446311642561" lon="1.2766757166025782"><ele>282.0</ele><time>2026-04-02T05:45:39Z</time></trkpt><trkpt lat="43.13466739181374" lon="1.276890321075432"><ele>282.0</ele><time>2026-04-02T05:45:40Z</time></trkpt><trkpt lat="43.13487429090455" lon="1.277097132085921"><ele>282.0</ele><time>2026-04-02T05:45:41Z</time></trkpt><trkpt lat="43.13508693112031" lon="1.2773018962614175"><ele>283.0</ele><time>2026-04-02T05:45:42Z</time></trkpt><trkpt lat="43.13529640597178" lon="1.277509802299675"><ele>284.0</ele><time>2026-04-02T05:45:43Z</time></trkpt><trkpt lat="43.135503969241014" lon="1.2777256440450413"><ele>284.0</ele><time>2026-04-02T05:45:44Z</time></trkpt><trkpt lat="43.13571160416313" lon="1.2779438896244586"><ele>284.0</ele><time>2026-04-02T05:45:45Z</time></trkpt><trkpt lat="43.13592061199077" lon="1.2781548452486688"><ele>284.0</ele><time>2026-04-02T05:45:46Z</time></trkpt><trkpt lat="43.13612895480504" lon="1.2783541458735146"><ele>284.0</ele><time>2026-04-02T05:45:47Z</time></trkpt><trkpt lat="43.13633254903751" lon="1.278555280015219"><ele>284.0</ele><time>2026-04-02T05:45:48Z</time></trkpt><trkpt lat="43.13652325625889" lon="1.2787736454431955"><ele>284.0</ele><time>2026-04-02T05:45:49Z</time></trkpt><trkpt lat="43.136679153297244" lon="1.279020499448094"><ele>283.0</ele><time>2026-04-02T05:45:50Z</time></trkpt><trkpt lat="43.13682775383123" lon="1.2792913169901905"><ele>282.0</ele><time>2026-04-02T05:45:51Z</time></trkpt><trkpt lat="43.13696106372865" lon="1.2795672411466976"><ele>281.5</ele><time>2026-04-02T05:45:52Z</time></trkpt><trkpt lat="43.137073874438734" lon="1.279867875716249"><ele>281.0</ele><time>2026-04-02T05:45:53Z</time></trkpt><trkpt lat="43.137170026173806" lon="1.2801893736475893"><ele>281.0</ele><time>2026-04-02T05:45:54Z</time></trkpt><trkpt lat="43.13724921257787" lon="1.2805311894506848"><ele>281.0</ele><time>2026-04-02T05:45:55Z</time></trkpt><trkpt lat="43.137296164719096" lon="1.2809004684259735"><ele>280.0</ele><time>2026-04-02T05:45:56Z</time></trkpt><trkpt lat="43.13733989580038" lon="1.2812783843019813"><ele>279.0</ele><time>2026-04-02T05:45:57Z</time></trkpt><trkpt lat="43.13739148707002" lon="1.2816625120289318"><ele>278.5</ele><time>2026-04-02T05:45:58Z</time></trkpt><trkpt lat="43.137422311302615" lon="1.282044458801589"><ele>278.0</ele><time>2026-04-02T05:45:59Z</time></trkpt><trkpt lat="43.13746501124723" lon="1.2824222948018058"><ele>278.0</ele><time>2026-04-02T05:46:00Z</time></trkpt><trkpt lat="43.13751197111105" lon="1.2827913630160095"><ele>278.0</ele><time>2026-04-02T05:46:01Z</time></trkpt><trkpt lat="43.137566552715434" lon="1.2831424861802043"><ele>278.0</ele><time>2026-04-02T05:46:02Z</time></trkpt><trkpt lat="43.137598504856825" lon="1.283509991014981"><ele>278.0</ele><time>2026-04-02T05:46:03Z</time></trkpt><trkpt lat="43.1377579648688" lon="1.2838475030379888"><ele>277.5</ele><time>2026-04-02T05:46:04Z</time></trkpt><trkpt lat="43.13787718825672" lon="1.2841953377066506"><ele>277.0</ele><time>2026-04-02T05:46:05Z</time></trkpt><trkpt lat="43.13799624049101" lon="1.2845391815771152"><ele>277.0</ele><time>2026-04-02T05:46:06Z</time></trkpt><trkpt lat="43.13812045230446" lon="1.2848779517407156"><ele>277.0</ele><time>2026-04-02T05:46:07Z</time></trkpt><trkpt lat="43.1382555137818" lon="1.2852178406891221"><ele>277.0</ele><time>2026-04-02T05:46:08Z</time></trkpt><trkpt lat="43.13839774415299" lon="1.2855471607436033"><ele>277.0</ele><time>2026-04-02T05:46:09Z</time></trkpt><trkpt lat="43.13854596202877" lon="1.285866828166986"><ele>275.5</ele><time>2026-04-02T05:46:10Z</time></trkpt><trkpt lat="43.13870376822269" lon="1.2861771741041923"><ele>274.0</ele><time>2026-04-02T05:46:11Z</time></trkpt><trkpt lat="43.138871848623374" lon="1.2864770948403588"><ele>274.0</ele><time>2026-04-02T05:46:12Z</time></trkpt><trkpt lat="43.139039934131816" lon="1.2867738704639449"><ele>274.0</ele><time>2026-04-02T05:46:13Z</time></trkpt><trkpt lat="43.13919971017607" lon="1.2870778873179112"><ele>274.0</ele><time>2026-04-02T05:46:14Z</time></trkpt><trkpt lat="43.139360215378545" lon="1.2873869562267168"><ele>274.0</ele><time>2026-04-02T05:46:15Z</time></trkpt><trkpt lat="43.13951614781664" lon="1.2876823189562518"><ele>274.0</ele><time>2026-04-02T05:46:16Z</time></trkpt><trkpt lat="43.139674221297525" lon="1.2879728375607784"><ele>274.0</ele><time>2026-04-02T05:46:17Z</time></trkpt><trkpt lat="43.13983044652813" lon="1.2882570569122171"><ele>273.5</ele><time>2026-04-02T05:46:18Z</time></trkpt><trkpt lat="43.13998492435173" lon="1.2885332357664925"><ele>273.0</ele><time>2026-04-02T05:46:19Z</time></trkpt><trkpt lat="43.14012608122554" lon="1.2888173176426232"><ele>272.5</ele><time>2026-04-02T05:46:20Z</time></trkpt><trkpt lat="43.14023693095127" lon="1.2891163897115163"><ele>272.0</ele><time>2026-04-02T05:46:21Z</time></trkpt><trkpt lat="43.140333168269436" lon="1.2894453581581233"><ele>271.5</ele><time>2026-04-02T05:46:22Z</time></trkpt><trkpt lat="43.14043091823692" lon="1.289793898546819"><ele>271.0</ele><time>2026-04-02T05:46:23Z</time></trkpt><trkpt lat="43.14053213847662" lon="1.2901419926771864"><ele>271.0</ele><time>2026-04-02T05:46:24Z</time></trkpt><trkpt lat="43.14063242481415" lon="1.290479297406848"><ele>271.0</ele><time>2026-04-02T05:46:25Z</time></trkpt><trkpt lat="43.14073074596983" lon="1.2908060869497886"><ele>271.0</ele><time>2026-04-02T05:46:26Z</time></trkpt><trkpt lat="43.14082746272876" lon="1.2911236851327454"><ele>271.0</ele><time>2026-04-02T05:46:27Z</time></trkpt><trkpt lat="43.140925357867246" lon="1.2914425882318028"><ele>270.5</ele><time>2026-04-02T05:46:28Z</time></trkpt><trkpt lat="43.141012394053234" lon="1.2917419946107982"><ele>270.0</ele><time>2026-04-02T05:46:29Z</time></trkpt><trkpt lat="43.14109432356258" lon="1.2920315935379505"><ele>270.0</ele><time>2026-04-02T05:46:30Z</time></trkpt><trkpt lat="43.141174623157895" lon="1.2923079107831363"><ele>270.0</ele><time>2026-04-02T05:46:31Z</time></trkpt><trkpt lat="43.14125223878541" lon="1.292591432358035"><ele>270.0</ele><time>2026-04-02T05:46:32Z</time></trkpt><trkpt lat="43.14132024271658" lon="1.2928987328590866"><ele>269.5</ele><time>2026-04-02T05:46:33Z</time></trkpt><trkpt lat="43.14137105007246" lon="1.2932231733340283"><ele>269.0</ele><time>2026-04-02T05:46:34Z</time></trkpt><trkpt lat="43.14139725043237" lon="1.2935447772415474"><ele>269.0</ele><time>2026-04-02T05:46:35Z</time></trkpt><trkpt lat="43.141403113846515" lon="1.293872599754383"><ele>269.0</ele><time>2026-04-02T05:46:36Z</time></trkpt><trkpt lat="43.141390302277806" lon="1.2942001495928122"><ele>268.5</ele><time>2026-04-02T05:46:37Z</time></trkpt><trkpt lat="43.14135978711469" lon="1.294526217730923"><ele>268.0</ele><time>2026-04-02T05:46:38Z</time></trkpt><trkpt lat="43.1413256197011" lon="1.294859998832293"><ele>268.0</ele><time>2026-04-02T05:46:39Z</time></trkpt><trkpt lat="43.141296852107395" lon="1.295186864040151"><ele>268.0</ele><time>2026-04-02T05:46:40Z</time></trkpt><trkpt lat="43.141271857682206" lon="1.2955094230444009"><ele>267.5</ele><time>2026-04-02T05:46:41Z</time></trkpt><trkpt lat="43.14124562728419" lon="1.2958229376209516"><ele>267.0</ele><time>2026-04-02T05:46:42Z</time></trkpt><trkpt lat="43.141216851466645" lon="1.2961385137553454"><ele>266.0</ele><time>2026-04-02T05:46:43Z</time></trkpt><trkpt lat="43.141194421773854" lon="1.2964368198437388"><ele>265.0</ele><time>2026-04-02T05:46:44Z</time></trkpt><trkpt lat="43.141172980096954" lon="1.2967244430459448"><ele>264.0</ele><time>2026-04-02T05:46:45Z</time></trkpt><trkpt lat="43.1411518331613" lon="1.296992063966207"><ele>264.0</ele><time>2026-04-02T05:46:46Z</time></trkpt><trkpt lat="43.14113631689862" lon="1.2972475921041668"><ele>264.0</ele><time>2026-04-02T05:46:47Z</time></trkpt><trkpt lat="43.141138310115046" lon="1.297489047426378"><ele>264.0</ele><time>2026-04-02T05:46:48Z</time></trkpt><trkpt lat="43.14116252789679" lon="1.2977385012503435"><ele>264.0</ele><time>2026-04-02T05:46:49Z</time></trkpt><trkpt lat="43.14120254910413" lon="1.2980041354976009"><ele>264.0</ele><time>2026-04-02T05:46:50Z</time></trkpt><trkpt lat="43.1412488171616" lon="1.2982833992604614"><ele>264.0</ele><time>2026-04-02T05:46:51Z</time></trkpt><trkpt lat="43.14128628495567" lon="1.2985706128235843"><ele>263.0</ele><time>2026-04-02T05:46:52Z</time></trkpt><trkpt lat="43.141321865187905" lon="1.2988680423657515"><ele>262.0</ele><time>2026-04-02T05:46:53Z</time></trkpt><trkpt lat="43.14136559825264" lon="1.299166993951089"><ele>261.0</ele><time>2026-04-02T05:46:54Z</time></trkpt><trkpt lat="43.14141225782809" lon="1.2994665774630603"><ele>261.0</ele><time>2026-04-02T05:46:55Z</time></trkpt><trkpt lat="43.141452062613595" lon="1.2997699667165252"><ele>261.0</ele><time>2026-04-02T05:46:56Z</time></trkpt><trkpt lat="43.14149344591771" lon="1.3000776141604458"><ele>261.0</ele><time>2026-04-02T05:46:57Z</time></trkpt><trkpt lat="43.14154235210215" lon="1.3003903005073087"><ele>261.0</ele><time>2026-04-02T05:46:58Z</time></trkpt><trkpt lat="43.141587426528936" lon="1.3006970190296412"><ele>261.0</ele><time>2026-04-02T05:46:59Z</time></trkpt><trkpt lat="43.141623483391804" lon="1.3009886540599243"><ele>261.0</ele><time>2026-04-02T05:47:00Z</time></trkpt><trkpt lat="43.141658876268366" lon="1.3012673977752838"><ele>261.0</ele><time>2026-04-02T05:47:01Z</time></trkpt><trkpt lat="43.141693558038355" lon="1.3015248969192885"><ele>260.3333333333333</ele><time>2026-04-02T05:47:02Z</time></trkpt><trkpt lat="43.14172381966031" lon="1.3017619283357365"><ele>259.66666666666663</ele><time>2026-04-02T05:47:03Z</time></trkpt><trkpt lat="43.14175465332141" lon="1.301984329635645"><ele>259.0</ele><time>2026-04-02T05:47:04Z</time></trkpt><trkpt lat="43.14180218537347" lon="1.3022201426524254"><ele>258.66666666666663</ele><time>2026-04-02T05:47:05Z</time></trkpt><trkpt lat="43.14188353164285" lon="1.3024578505370084"><ele>258.3333333333333</ele><time>2026-04-02T05:47:06Z</time></trkpt><trkpt lat="43.14198502326772" lon="1.3026850953087679"><ele>258.0</ele><time>2026-04-02T05:47:07Z</time></trkpt><trkpt lat="43.14209601901487" lon="1.302913690311256"><ele>257.6666666666667</ele><time>2026-04-02T05:47:08Z</time></trkpt><trkpt lat="43.14220162455306" lon="1.3031436803746792"><ele>257.33333333333337</ele><time>2026-04-02T05:47:09Z</time></trkpt><trkpt lat="43.14230543704447" lon="1.303366081782887"><ele>257.0</ele><time>2026-04-02T05:47:10Z</time></trkpt><trkpt lat="43.14240193908262" lon="1.303568771067282"><ele>255.0</ele><time>2026-04-02T05:47:11Z</time></trkpt><trkpt lat="43.14249326600504" lon="1.303763941978582"><ele>253.0</ele><time>2026-04-02T05:47:12Z</time></trkpt><trkpt lat="43.142577393625395" lon="1.3039515704480693"><ele>251.0</ele><time>2026-04-02T05:47:13Z</time></trkpt><trkpt lat="43.142656883955304" lon="1.304124891131073"><ele>250.75</ele><time>2026-04-02T05:47:14Z</time></trkpt><trkpt lat="43.14273317576892" lon="1.3042779819796688"><ele>250.5</ele><time>2026-04-02T05:47:15Z</time></trkpt><trkpt lat="43.14280520701708" lon="1.304418540476476"><ele>250.25</ele><time>2026-04-02T05:47:16Z</time></trkpt><trkpt lat="43.1428747919565" lon="1.3045527163624124"><ele>250.0</ele><time>2026-04-02T05:47:17Z</time></trkpt><trkpt lat="43.14294172105795" lon="1.3046880249677806"><ele>250.25</ele><time>2026-04-02T05:47:18Z</time></trkpt><trkpt lat="43.14299487322364" lon="1.304834337136361"><ele>250.5</ele><time>2026-04-02T05:47:19Z</time></trkpt><trkpt lat="43.1430565208277" lon="1.3049677352575297"><ele>250.75</ele><time>2026-04-02T05:47:20Z</time></trkpt><trkpt lat="43.14312681892277" lon="1.305090403298941"><ele>251.0</ele><time>2026-04-02T05:47:21Z</time></trkpt><trkpt lat="43.14317105813883" lon="1.3052330182219347"><ele>251.0</ele><time>2026-04-02T05:47:22Z</time></trkpt><trkpt lat="43.1432276900128" lon="1.3053613028870386"><ele>251.00000000000003</ele><time>2026-04-02T05:47:23Z</time></trkpt><trkpt lat="43.143292692811" lon="1.3054769307450393"><ele>251.00000000000003</ele><time>2026-04-02T05:47:24Z</time></trkpt><trkpt lat="43.14335376509473" lon="1.3055910871208278"><ele>251.0</ele><time>2026-04-02T05:47:25Z</time></trkpt><trkpt lat="43.14340881325622" lon="1.3057056426091407"><ele>251.0</ele><time>2026-04-02T05:47:26Z</time></trkpt><trkpt lat="43.14345535184443" lon="1.3058172067494436"><ele>251.00000000000003</ele><time>2026-04-02T05:47:27Z</time></trkpt><trkpt lat="43.14350110266231" lon="1.3059276273516596"><ele>251.0</ele><time>2026-04-02T05:47:28Z</time></trkpt><trkpt lat="43.143548159379236" lon="1.306030751995078"><ele>251.0</ele><time>2026-04-02T05:47:29Z</time></trkpt><trkpt lat="43.14359578912089" lon="1.3061304248991696"><ele>251.0</ele><time>2026-04-02T05:47:30Z</time></trkpt><trkpt lat="43.14364245412007" lon="1.3062288368044173"><ele>251.00000000000003</ele><time>2026-04-02T05:47:31Z</time></trkpt><trkpt lat="43.14368271040723" lon="1.3063248041667086"><ele>251.0</ele><time>2026-04-02T05:47:32Z</time></trkpt><trkpt lat="43.14371936428356" lon="1.3064178217395561"><ele>250.83333333333334</ele><time>2026-04-02T05:47:33Z</time></trkpt><trkpt lat="43.143756719274634" lon="1.306500212300568"><ele>250.66666666666669</ele><time>2026-04-02T05:47:34Z</time></trkpt><trkpt lat="43.14379591790605" lon="1.3065714342740464"><ele>250.5</ele><time>2026-04-02T05:47:35Z</time></trkpt><trkpt lat="43.143867586712354" lon="1.3066879781360883"><ele>250.33333333333331</ele><time>2026-04-02T05:47:37Z</time></trkpt><trkpt lat="43.14390496842705" lon="1.3068004041222763"><ele>250.16666666666666</ele><time>2026-04-02T05:47:39Z</time></trkpt><trkpt lat="43.143978214975704" lon="1.3068495369663182"><ele>250.0</ele><time>2026-04-02T05:47:41Z</time></trkpt><trkpt lat="43.14400166017668" lon="1.3069308787402296"><ele>250.0</ele><time>2026-04-02T05:47:44Z</time></trkpt><trkpt lat="43.143958101113306" lon="1.3070352662839821"><ele>250.0</ele><time>2026-04-02T05:47:46Z</time></trkpt><trkpt lat="43.14392265351654" lon="1.3072027366874004"><ele>250.0</ele><time>2026-04-02T05:47:48Z</time></trkpt><trkpt lat="43.14390323326447" lon="1.3073441823795398"><ele>250.0</ele><time>2026-04-02T05:47:50Z</time></trkpt><trkpt lat="43.14389373118498" lon="1.3074420391901431"><ele>250.0</ele><time>2026-04-02T05:47:52Z</time></trkpt><trkpt lat="43.14390798351642" lon="1.3075601239581662"><ele>250.16666666666666</ele><time>2026-04-02T05:48:03Z</time></trkpt><trkpt lat="43.143895683682" lon="1.3077219689448876"><ele>250.33333333333331</ele><time>2026-04-02T05:48:05Z</time></trkpt><trkpt lat="43.14389932391957" lon="1.3078177805166422"><ele>250.5</ele><time>2026-04-02T05:48:06Z</time></trkpt><trkpt lat="43.14390027364081" lon="1.3079074340335255"><ele>250.66666666666669</ele><time>2026-04-02T05:48:07Z</time></trkpt><trkpt lat="43.143901024184984" lon="1.3080059505728165"><ele>250.83333333333334</ele><time>2026-04-02T05:48:08Z</time></trkpt><trkpt lat="43.14390025966082" lon="1.3081025332458573"><ele>251.0</ele><time>2026-04-02T05:48:09Z</time></trkpt><trkpt lat="43.143921760031986" lon="1.3082835964907797"><ele>251.0</ele><time>2026-04-02T05:48:11Z</time></trkpt><trkpt lat="43.14395002388913" lon="1.3083896584626176"><ele>251.00000000000003</ele><time>2026-04-02T05:48:12Z</time></trkpt><trkpt lat="43.14398294598158" lon="1.3085049864237939"><ele>251.00000000000003</ele><time>2026-04-02T05:48:13Z</time></trkpt><trkpt lat="43.144024534957886" lon="1.3086330122929624"><ele>251.0</ele><time>2026-04-02T05:48:14Z</time></trkpt><trkpt lat="43.14406891913635" lon="1.3087687817966505"><ele>251.0</ele><time>2026-04-02T05:48:15Z</time></trkpt><trkpt lat="43.144118833156796" lon="1.3089191161979274"><ele>250.25</ele><time>2026-04-02T05:48:16Z</time></trkpt><trkpt lat="43.14417243512452" lon="1.309080249358601"><ele>249.5</ele><time>2026-04-02T05:48:17Z</time></trkpt><trkpt lat="43.14422200777644" lon="1.3092388954158858"><ele>248.75</ele><time>2026-04-02T05:48:18Z</time></trkpt><trkpt lat="43.14426909677417" lon="1.3093838054900067"><ele>248.0</ele><time>2026-04-02T05:48:19Z</time></trkpt><trkpt lat="43.14432352110762" lon="1.3095412294578768"><ele>248.0</ele><time>2026-04-02T05:48:20Z</time></trkpt><trkpt lat="43.14438160966338" lon="1.3097090842752512"><ele>248.0</ele><time>2026-04-02T05:48:21Z</time></trkpt><trkpt lat="43.14444091018577" lon="1.3098846299109745"><ele>248.0</ele><time>2026-04-02T05:48:22Z</time></trkpt><trkpt lat="43.144502806977854" lon="1.3100666813660695"><ele>248.0</ele><time>2026-04-02T05:48:23Z</time></trkpt><trkpt lat="43.144560746923574" lon="1.310253642256591"><ele>248.0</ele><time>2026-04-02T05:48:24Z</time></trkpt><trkpt lat="43.14460820775842" lon="1.3104281776750846"><ele>248.0</ele><time>2026-04-02T05:48:25Z</time></trkpt><trkpt lat="43.14464337529057" lon="1.310602915029757"><ele>248.0</ele><time>2026-04-02T05:48:26Z</time></trkpt><trkpt lat="43.144647759067894" lon="1.310774704077277"><ele>248.0</ele><time>2026-04-02T05:48:27Z</time></trkpt><trkpt lat="43.14463430511628" lon="1.3109583049488978"><ele>248.0</ele><time>2026-04-02T05:48:28Z</time></trkpt><trkpt lat="43.14459513701861" lon="1.3111411182640251"><ele>248.0</ele><time>2026-04-02T05:48:29Z</time></trkpt><trkpt lat="43.144526804495676" lon="1.3113161956907267"><ele>248.0</ele><time>2026-04-02T05:48:30Z</time></trkpt><trkpt lat="43.144440323840286" lon="1.311486943815243"><ele>248.0</ele><time>2026-04-02T05:48:31Z</time></trkpt><trkpt lat="43.14434454078474" lon="1.3116593943550496"><ele>247.66666666666669</ele><time>2026-04-02T05:48:32Z</time></trkpt><trkpt lat="43.14424482337736" lon="1.3118434629112947"><ele>247.33333333333331</ele><time>2026-04-02T05:48:33Z</time></trkpt><trkpt lat="43.14414389137409" lon="1.3120405064489047"><ele>247.0</ele><time>2026-04-02T05:48:34Z</time></trkpt><trkpt lat="43.144033771343416" lon="1.3122393475673464"><ele>247.0</ele><time>2026-04-02T05:48:35Z</time></trkpt><trkpt lat="43.14392316928326" lon="1.3124318527790588"><ele>247.0</ele><time>2026-04-02T05:48:36Z</time></trkpt><trkpt lat="43.14382042810568" lon="1.3126298539147463"><ele>247.0</ele><time>2026-04-02T05:48:37Z</time></trkpt><trkpt lat="43.14371503620404" lon="1.312826135130637"><ele>247.0</ele><time>2026-04-02T05:48:38Z</time></trkpt><trkpt lat="43.143608910570364" lon="1.3130245434959071"><ele>247.0</ele><time>2026-04-02T05:48:39Z</time></trkpt><trkpt lat="43.143502438757" lon="1.313223576238108"><ele>247.0</ele><time>2026-04-02T05:48:40Z</time></trkpt><trkpt lat="43.14339588984776" lon="1.3134220258765803"><ele>247.0</ele><time>2026-04-02T05:48:41Z</time></trkpt><trkpt lat="43.14329184843135" lon="1.3136232312716845"><ele>247.0</ele><time>2026-04-02T05:48:42Z</time></trkpt><trkpt lat="43.14319080401978" lon="1.3138226138541869"><ele>247.0</ele><time>2026-04-02T05:48:43Z</time></trkpt><trkpt lat="43.143090342347975" lon="1.3140178756514767"><ele>247.0</ele><time>2026-04-02T05:48:44Z</time></trkpt><trkpt lat="43.14298949617345" lon="1.314208132710936"><ele>247.0</ele><time>2026-04-02T05:48:45Z</time></trkpt><trkpt lat="43.14286874690183" lon="1.3144236718006919"><ele>247.0</ele><time>2026-04-02T05:48:46Z</time></trkpt><trkpt lat="43.142763435360884" lon="1.3146193019520835"><ele>247.33333333333331</ele><time>2026-04-02T05:48:47Z</time></trkpt><trkpt lat="43.14266272583763" lon="1.3148087566733813"><ele>247.66666666666669</ele><time>2026-04-02T05:48:48Z</time></trkpt><trkpt lat="43.14256950125814" lon="1.314982488944557"><ele>248.0</ele><time>2026-04-02T05:48:49Z</time></trkpt><trkpt lat="43.142475089058344" lon="1.3151508895499282"><ele>248.0</ele><time>2026-04-02T05:48:50Z</time></trkpt><trkpt lat="43.14236850579332" lon="1.3153461470800851"><ele>248.0</ele><time>2026-04-02T05:48:51Z</time></trkpt><trkpt lat="43.14225637302753" lon="1.3155556698644313"><ele>248.0</ele><time>2026-04-02T05:48:52Z</time></trkpt><trkpt lat="43.14213932754727" lon="1.315770376254942"><ele>247.66666666666669</ele><time>2026-04-02T05:48:53Z</time></trkpt><trkpt lat="43.14201848678726" lon="1.3159962571277428"><ele>247.33333333333331</ele><time>2026-04-02T05:48:54Z</time></trkpt><trkpt lat="43.14189107370701" lon="1.3162421717430286"><ele>247.0</ele><time>2026-04-02T05:48:55Z</time></trkpt><trkpt lat="43.14176173116892" lon="1.3164811150670965"><ele>247.0</ele><time>2026-04-02T05:48:56Z</time></trkpt><trkpt lat="43.14163311362301" lon="1.3167168396878435"><ele>247.0</ele><time>2026-04-02T05:48:57Z</time></trkpt><trkpt lat="43.14150304332621" lon="1.3169579856272566"><ele>247.0</ele><time>2026-04-02T05:48:58Z</time></trkpt><trkpt lat="43.14136938250021" lon="1.3172003027113248"><ele>247.5</ele><time>2026-04-02T05:48:59Z</time></trkpt><trkpt lat="43.14123208076991" lon="1.3174403365142777"><ele>248.0</ele><time>2026-04-02T05:49:00Z</time></trkpt><trkpt lat="43.14108145965185" lon="1.3177015004357069"><ele>248.0</ele><time>2026-04-02T05:49:01Z</time></trkpt><trkpt lat="43.14093862369544" lon="1.3179337412209808"><ele>248.0</ele><time>2026-04-02T05:49:02Z</time></trkpt><trkpt lat="43.140795360316865" lon="1.3181734749521212"><ele>248.0</ele><time>2026-04-02T05:49:03Z</time></trkpt><trkpt lat="43.14064742557296" lon="1.3183982389913136"><ele>248.33333333333334</ele><time>2026-04-02T05:49:04Z</time></trkpt><trkpt lat="43.140483911091614" lon="1.318604520293318"><ele>248.66666666666669</ele><time>2026-04-02T05:49:05Z</time></trkpt><trkpt lat="43.14030849806921" lon="1.3187996117745118"><ele>249.0</ele><time>2026-04-02T05:49:06Z</time></trkpt><trkpt lat="43.140119990021745" lon="1.3189723443201404"><ele>250.0</ele><time>2026-04-02T05:49:07Z</time></trkpt><trkpt lat="43.13991298744095" lon="1.3191443984433366"><ele>251.0</ele><time>2026-04-02T05:49:08Z</time></trkpt><trkpt lat="43.13970213085799" lon="1.3193017476038948"><ele>251.0</ele><time>2026-04-02T05:49:09Z</time></trkpt><trkpt lat="43.13949026060447" lon="1.3194422843683702"><ele>251.0</ele><time>2026-04-02T05:49:10Z</time></trkpt><trkpt lat="43.13926731897168" lon="1.3195548557673067"><ele>251.0</ele><time>2026-04-02T05:49:11Z</time></trkpt><trkpt lat="43.13903219138676" lon="1.3196303023312572"><ele>251.0</ele><time>2026-04-02T05:49:12Z</time></trkpt><trkpt lat="43.13879558459586" lon="1.3196818203936334"><ele>254.0</ele><time>2026-04-02T05:49:13Z</time></trkpt><trkpt lat="43.138561836175946" lon="1.3197424928315298"><ele>257.0</ele><time>2026-04-02T05:49:14Z</time></trkpt><trkpt lat="43.13833659427016" lon="1.3198419069497607"><ele>254.0</ele><time>2026-04-02T05:49:15Z</time></trkpt><trkpt lat="43.138120831555355" lon="1.3199597507603065"><ele>251.0</ele><time>2026-04-02T05:49:16Z</time></trkpt><trkpt lat="43.13790467126625" lon="1.3201220350748908"><ele>251.0</ele><time>2026-04-02T05:49:17Z</time></trkpt><trkpt lat="43.13769609220257" lon="1.3202936676192276"><ele>251.0</ele><time>2026-04-02T05:49:18Z</time></trkpt><trkpt lat="43.13746338051821" lon="1.3204040850275638"><ele>250.0</ele><time>2026-04-02T05:49:19Z</time></trkpt><trkpt lat="43.137225714842415" lon="1.3204705020879204"><ele>249.0</ele><time>2026-04-02T05:49:20Z</time></trkpt><trkpt lat="43.136979675335354" lon="1.320514939746391"><ele>249.0</ele><time>2026-04-02T05:49:21Z</time></trkpt><trkpt lat="43.13673309429865" lon="1.3205531988585575"><ele>249.0</ele><time>2026-04-02T05:49:22Z</time></trkpt><trkpt lat="43.136484638280976" lon="1.3206112784125847"><ele>252.0</ele><time>2026-04-02T05:49:23Z</time></trkpt><trkpt lat="43.136233539330604" lon="1.320645833793096"><ele>255.0</ele><time>2026-04-02T05:49:24Z</time></trkpt><trkpt lat="43.13597908287543" lon="1.3206474255725318"><ele>255.0</ele><time>2026-04-02T05:49:25Z</time></trkpt><trkpt lat="43.135728959233006" lon="1.3206435792174218"><ele>255.0</ele><time>2026-04-02T05:49:26Z</time></trkpt><trkpt lat="43.13548062481882" lon="1.3206332182568732"><ele>254.5</ele><time>2026-04-02T05:49:27Z</time></trkpt><trkpt lat="43.13523751856617" lon="1.3206425960874055"><ele>254.0</ele><time>2026-04-02T05:49:28Z</time></trkpt><trkpt lat="43.13499674910558" lon="1.3206290537259238"><ele>254.5</ele><time>2026-04-02T05:49:29Z</time></trkpt><trkpt lat="43.13475889931903" lon="1.3206238238605708"><ele>255.0</ele><time>2026-04-02T05:49:30Z</time></trkpt><trkpt lat="43.1345245511379" lon="1.320655893989527"><ele>255.0</ele><time>2026-04-02T05:49:31Z</time></trkpt><trkpt lat="43.1342915803913" lon="1.3207278224307406"><ele>255.0</ele><time>2026-04-02T05:49:32Z</time></trkpt><trkpt lat="43.13405755701701" lon="1.320842963509258"><ele>253.5</ele><time>2026-04-02T05:49:33Z</time></trkpt><trkpt lat="43.133828994009555" lon="1.3210042886011188"><ele>252.0</ele><time>2026-04-02T05:49:34Z</time></trkpt><trkpt lat="43.1336035490326" lon="1.3212014787104487"><ele>252.5</ele><time>2026-04-02T05:49:35Z</time></trkpt><trkpt lat="43.133395464781444" lon="1.321403717406976"><ele>253.0</ele><time>2026-04-02T05:49:36Z</time></trkpt><trkpt lat="43.133207282868675" lon="1.3216182551136286"><ele>253.0</ele><time>2026-04-02T05:49:37Z</time></trkpt><trkpt lat="43.13303700654688" lon="1.3218709688465664"><ele>253.0</ele><time>2026-04-02T05:49:38Z</time></trkpt><trkpt lat="43.132898747624104" lon="1.3222005229491636"><ele>253.0</ele><time>2026-04-02T05:49:39Z</time></trkpt><trkpt lat="43.132737877197684" lon="1.322480165752625"><ele>253.0</ele><time>2026-04-02T05:49:40Z</time></trkpt><trkpt lat="43.13270777624004" lon="1.3228677631712429"><ele>253.0</ele><time>2026-04-02T05:49:41Z</time></trkpt><trkpt lat="43.132667526777574" lon="1.3232100340978348"><ele>253.0</ele><time>2026-04-02T05:49:42Z</time></trkpt><trkpt lat="43.1326268056603" lon="1.3235702852392626"><ele>253.0</ele><time>2026-04-02T05:49:43Z</time></trkpt><trkpt lat="43.13253892724999" lon="1.3239375996853175"><ele>253.0</ele><time>2026-04-02T05:49:44Z</time></trkpt><trkpt lat="43.13243279772663" lon="1.3243196019435863"><ele>252.5</ele><time>2026-04-02T05:49:45Z</time></trkpt><trkpt lat="43.13233524673709" lon="1.3247174354818636"><ele>252.0</ele><time>2026-04-02T05:49:46Z</time></trkpt><trkpt lat="43.132229519467785" lon="1.3251132509992234"><ele>252.0</ele><time>2026-04-02T05:49:47Z</time></trkpt><trkpt lat="43.13212810611814" lon="1.325503599744274"><ele>252.0</ele><time>2026-04-02T05:49:48Z</time></trkpt><trkpt lat="43.13202892246308" lon="1.3258960166766096"><ele>252.0</ele><time>2026-04-02T05:49:49Z</time></trkpt><trkpt lat="43.131926704617776" lon="1.3263018150813728"><ele>252.0</ele><time>2026-04-02T05:49:50Z</time></trkpt><trkpt lat="43.13181777547098" lon="1.3267224130334336"><ele>252.0</ele><time>2026-04-02T05:49:51Z</time></trkpt><trkpt lat="43.13171080294428" lon="1.3271403080779078"><ele>252.0</ele><time>2026-04-02T05:49:52Z</time></trkpt><trkpt lat="43.131606529308954" lon="1.3275412827902755"><ele>252.0</ele><time>2026-04-02T05:49:53Z</time></trkpt><trkpt lat="43.13150214409554" lon="1.3279346069114597"><ele>252.0</ele><time>2026-04-02T05:49:54Z</time></trkpt><trkpt lat="43.131403651293226" lon="1.3283160844529633"><ele>252.0</ele><time>2026-04-02T05:49:55Z</time></trkpt><trkpt lat="43.131307614446634" lon="1.3287016873026734"><ele>252.0</ele><time>2026-04-02T05:49:56Z</time></trkpt><trkpt lat="43.13121174158654" lon="1.3290891453638776"><ele>252.0</ele><time>2026-04-02T05:49:57Z</time></trkpt><trkpt lat="43.13111460048605" lon="1.3294822546636722"><ele>252.0</ele><time>2026-04-02T05:49:58Z</time></trkpt><trkpt lat="43.13101660637021" lon="1.3298623131064609"><ele>252.0</ele><time>2026-04-02T05:49:59Z</time></trkpt><trkpt lat="43.130923850186704" lon="1.3302094257458061"><ele>252.0</ele><time>2026-04-02T05:50:00Z</time></trkpt><trkpt lat="43.13083709138351" lon="1.3305310668269767"><ele>252.5</ele><time>2026-04-02T05:50:01Z</time></trkpt><trkpt lat="43.13075453009823" lon="1.3308430393434034"><ele>253.0</ele><time>2026-04-02T05:50:02Z</time></trkpt><trkpt lat="43.13067662952379" lon="1.3311353511256607"><ele>253.0</ele><time>2026-04-02T05:50:03Z</time></trkpt><trkpt lat="43.13060548085499" lon="1.3314152027132928"><ele>253.0</ele><time>2026-04-02T05:50:04Z</time></trkpt><trkpt lat="43.13053943545923" lon="1.3316807306672407"><ele>253.0</ele><time>2026-04-02T05:50:05Z</time></trkpt><trkpt lat="43.1304703394786" lon="1.331950025393962"><ele>253.33333333333331</ele><time>2026-04-02T05:50:06Z</time></trkpt><trkpt lat="43.13039966674758" lon="1.3322250151535031"><ele>253.66666666666669</ele><time>2026-04-02T05:50:07Z</time></trkpt><trkpt lat="43.13033171375122" lon="1.3324953839352294"><ele>254.0</ele><time>2026-04-02T05:50:08Z</time></trkpt><trkpt lat="43.13026828695446" lon="1.3327641419436842"><ele>254.0</ele><time>2026-04-02T05:50:09Z</time></trkpt><trkpt lat="43.13019955910666" lon="1.3330303096050549"><ele>254.0</ele><time>2026-04-02T05:50:10Z</time></trkpt><trkpt lat="43.130128308201385" lon="1.3332921597617142"><ele>254.0</ele><time>2026-04-02T05:50:11Z</time></trkpt><trkpt lat="43.13006213251685" lon="1.333551365412774"><ele>254.0</ele><time>2026-04-02T05:50:12Z</time></trkpt><trkpt lat="43.1299964326639" lon="1.333807904525116"><ele>254.0</ele><time>2026-04-02T05:50:13Z</time></trkpt><trkpt lat="43.129929513665786" lon="1.334054024122303"><ele>254.0</ele><time>2026-04-02T05:50:14Z</time></trkpt><trkpt lat="43.129866291093315" lon="1.3342921910900007"><ele>254.0</ele><time>2026-04-02T05:50:15Z</time></trkpt><trkpt lat="43.12980287616496" lon="1.3345294342158245"><ele>254.0</ele><time>2026-04-02T05:50:16Z</time></trkpt><trkpt lat="43.12974247288525" lon="1.3347593035165741"><ele>254.0</ele><time>2026-04-02T05:50:17Z</time></trkpt><trkpt lat="43.12968056804949" lon="1.3349921982111337"><ele>254.0</ele><time>2026-04-02T05:50:18Z</time></trkpt><trkpt lat="43.1296210496956" lon="1.3352200490722914"><ele>254.0</ele><time>2026-04-02T05:50:19Z</time></trkpt><trkpt lat="43.12956705712522" lon="1.3354307154925222"><ele>254.0</ele><time>2026-04-02T05:50:20Z</time></trkpt><trkpt lat="43.12951583661763" lon="1.3356264584288418"><ele>254.25</ele><time>2026-04-02T05:50:21Z</time></trkpt><trkpt lat="43.12946792037415" lon="1.335808893966602"><ele>254.5</ele><time>2026-04-02T05:50:22Z</time></trkpt><trkpt lat="43.12942386127275" lon="1.3359740018132673"><ele>254.75</ele><time>2026-04-02T05:50:23Z</time></trkpt><trkpt lat="43.129385398851674" lon="1.3361296233454723"><ele>255.0</ele><time>2026-04-02T05:50:24Z</time></trkpt><trkpt lat="43.12934933642875" lon="1.3362720840998896"><ele>255.4</ele><time>2026-04-02T05:50:25Z</time></trkpt><trkpt lat="43.12931496873821" lon="1.3364003127200914"><ele>255.8</ele><time>2026-04-02T05:50:26Z</time></trkpt><trkpt lat="43.12928880789021" lon="1.3365098758151766"><ele>256.2</ele><time>2026-04-02T05:50:27Z</time></trkpt><trkpt lat="43.12926178135472" lon="1.3366411832033518"><ele>256.6</ele><time>2026-04-02T05:50:29Z</time></trkpt><trkpt lat="43.129222833612474" lon="1.3367801877064998"><ele>257.0</ele><time>2026-04-02T05:50:31Z</time></trkpt><trkpt lat="43.12919682855513" lon="1.336868748844691"><ele>257.0</ele><time>2026-04-02T05:50:32Z</time></trkpt><trkpt lat="43.12916834380955" lon="1.3369683839159656"><ele>257.0</ele><time>2026-04-02T05:50:33Z</time></trkpt><trkpt lat="43.12914119099107" lon="1.3370755366810019"><ele>257.0</ele><time>2026-04-02T05:50:34Z</time></trkpt><trkpt lat="43.12911204154541" lon="1.3371898212616378"><ele>257.0</ele><time>2026-04-02T05:50:35Z</time></trkpt><trkpt lat="43.12907855818007" lon="1.337304759892958"><ele>257.0</ele><time>2026-04-02T05:50:36Z</time></trkpt><trkpt lat="43.12904448046779" lon="1.3374195645939793"><ele>257.0</ele><time>2026-04-02T05:50:37Z</time></trkpt><trkpt lat="43.12900735744907" lon="1.3375300172754365"><ele>257.0</ele><time>2026-04-02T05:50:38Z</time></trkpt><trkpt lat="43.12896989675809" lon="1.3376377579642957"><ele>257.0</ele><time>2026-04-02T05:50:39Z</time></trkpt><trkpt lat="43.128932271330804" lon="1.3377411233952492"><ele>257.0</ele><time>2026-04-02T05:50:40Z</time></trkpt><trkpt lat="43.1288968142643" lon="1.3378350432685981"><ele>257.0</ele><time>2026-04-02T05:50:41Z</time></trkpt><trkpt lat="43.128865158170456" lon="1.3379174487856749"><ele>257.0</ele><time>2026-04-02T05:50:42Z</time></trkpt><trkpt lat="43.12883062165406" lon="1.3379935555530296"><ele>257.0</ele><time>2026-04-02T05:50:43Z</time></trkpt><trkpt lat="43.128761834113604" lon="1.338124639807092"><ele>257.0</ele><time>2026-04-02T05:50:45Z</time></trkpt><trkpt lat="43.128685412346044" lon="1.3382462408220261"><ele>257.0</ele><time>2026-04-02T05:50:47Z</time></trkpt><trkpt lat="43.1286291467911" lon="1.33832234606876"><ele>257.0</ele><time>2026-04-02T05:50:48Z</time></trkpt><trkpt lat="43.128567064738114" lon="1.338397018411976"><ele>257.0</ele><time>2026-04-02T05:50:49Z</time></trkpt><trkpt lat="43.128502011467994" lon="1.3384635606659285"><ele>257.0</ele><time>2026-04-02T05:50:50Z</time></trkpt><trkpt lat="43.12843217913778" lon="1.3385405557248111"><ele>257.0</ele><time>2026-04-02T05:50:51Z</time></trkpt><trkpt lat="43.12836767362729" lon="1.3386133549200094"><ele>257.0</ele><time>2026-04-02T05:50:52Z</time></trkpt><trkpt lat="43.128308211688385" lon="1.3386811915998194"><ele>257.0</ele><time>2026-04-02T05:50:53Z</time></trkpt><trkpt lat="43.128235768999325" lon="1.3387207582526313"><ele>257.0</ele><time>2026-04-02T05:50:54Z</time></trkpt><trkpt lat="43.12815381064545" lon="1.3387274589513667"><ele>257.0</ele><time>2026-04-02T05:50:56Z</time></trkpt><trkpt lat="43.12810607495975" lon="1.338798231816364"><ele>257.0</ele><time>2026-04-02T05:50:59Z</time></trkpt><trkpt lat="43.1280405875039" lon="1.33890318093174"><ele>257.6</ele><time>2026-04-02T05:51:01Z</time></trkpt><trkpt lat="43.12797822312159" lon="1.339035059591493"><ele>258.2</ele><time>2026-04-02T05:51:03Z</time></trkpt><trkpt lat="43.127933207115184" lon="1.3391170187348334"><ele>258.8</ele><time>2026-04-02T05:51:04Z</time></trkpt><trkpt lat="43.12787267707183" lon="1.339208824309707"><ele>259.4</ele><time>2026-04-02T05:51:05Z</time></trkpt><trkpt lat="43.127803290937855" lon="1.339301548772894"><ele>260.0</ele><time>2026-04-02T05:51:06Z</time></trkpt><trkpt lat="43.127723265775764" lon="1.3394203692417799"><ele>260.0</ele><time>2026-04-02T05:51:07Z</time></trkpt><trkpt lat="43.12759942543689" lon="1.3395476271980755"><ele>260.0</ele><time>2026-04-02T05:51:08Z</time></trkpt><trkpt lat="43.12749272063824" lon="1.33967667616549"><ele>260.0</ele><time>2026-04-02T05:51:09Z</time></trkpt><trkpt lat="43.127411815319014" lon="1.3398023052126866"><ele>260.0</ele><time>2026-04-02T05:51:10Z</time></trkpt><trkpt lat="43.12732840284475" lon="1.3399022495443709"><ele>259.25</ele><time>2026-04-02T05:51:11Z</time></trkpt><trkpt lat="43.127251321083854" lon="1.3399964184998376"><ele>258.5</ele><time>2026-04-02T05:51:12Z</time></trkpt><trkpt lat="43.127176612608785" lon="1.3400849462262996"><ele>257.75</ele><time>2026-04-02T05:51:13Z</time></trkpt><trkpt lat="43.12708261521149" lon="1.3401887299279924"><ele>257.0</ele><time>2026-04-02T05:51:14Z</time></trkpt><trkpt lat="43.12697113950455" lon="1.3403228380788772"><ele>257.0</ele><time>2026-04-02T05:51:15Z</time></trkpt><trkpt lat="43.12684365589355" lon="1.340476987130248"><ele>257.0</ele><time>2026-04-02T05:51:16Z</time></trkpt><trkpt lat="43.126697193989216" lon="1.3406515563925794"><ele>257.0</ele><time>2026-04-02T05:51:17Z</time></trkpt><trkpt lat="43.12654902155196" lon="1.340831354447449"><ele>257.33333333333337</ele><time>2026-04-02T05:51:18Z</time></trkpt><trkpt lat="43.12639825351472" lon="1.3410113006853321"><ele>257.6666666666667</ele><time>2026-04-02T05:51:19Z</time></trkpt><trkpt lat="43.126251381849535" lon="1.341185615548552"><ele>258.0</ele><time>2026-04-02T05:51:20Z</time></trkpt><trkpt lat="43.126109558293884" lon="1.341361569798384"><ele>258.3333333333333</ele><time>2026-04-02T05:51:21Z</time></trkpt><trkpt lat="43.12595829260161" lon="1.3415237401924571"><ele>258.66666666666663</ele><time>2026-04-02T05:51:22Z</time></trkpt><trkpt lat="43.12581267755494" lon="1.3416999283610163"><ele>259.0</ele><time>2026-04-02T05:51:23Z</time></trkpt><trkpt lat="43.12567737566908" lon="1.3418887057441526"><ele>259.0</ele><time>2026-04-02T05:51:24Z</time></trkpt><trkpt lat="43.125533342428064" lon="1.342062627436637"><ele>259.0</ele><time>2026-04-02T05:51:25Z</time></trkpt><trkpt lat="43.1254024884557" lon="1.342253644215815"><ele>259.0</ele><time>2026-04-02T05:51:26Z</time></trkpt><trkpt lat="43.12527604928437" lon="1.3424681397805351"><ele>259.3333333333333</ele><time>2026-04-02T05:51:27Z</time></trkpt><trkpt lat="43.12515394989749" lon="1.342686139263671"><ele>259.6666666666667</ele><time>2026-04-02T05:51:28Z</time></trkpt><trkpt lat="43.12503043966733" lon="1.3429156425901054"><ele>260.0</ele><time>2026-04-02T05:51:29Z</time></trkpt><trkpt lat="43.12490518328793" lon="1.3431528726949764"><ele>259.5</ele><time>2026-04-02T05:51:30Z</time></trkpt><trkpt lat="43.124776669750446" lon="1.3434068293011077"><ele>259.0</ele><time>2026-04-02T05:51:31Z</time></trkpt><trkpt lat="43.124639368967465" lon="1.3436621871188676"><ele>260.0</ele><time>2026-04-02T05:51:32Z</time></trkpt><trkpt lat="43.12449888641603" lon="1.343922355878024"><ele>261.0</ele><time>2026-04-02T05:51:33Z</time></trkpt><trkpt lat="43.124361429193804" lon="1.3441908288434998"><ele>261.0</ele><time>2026-04-02T05:51:34Z</time></trkpt><trkpt lat="43.12422382792436" lon="1.3444588829022055"><ele>261.0</ele><time>2026-04-02T05:51:35Z</time></trkpt><trkpt lat="43.124085856440765" lon="1.3447201571269483"><ele>260.0</ele><time>2026-04-02T05:51:36Z</time></trkpt><trkpt lat="43.12395205321967" lon="1.3449826051037543"><ele>259.0</ele><time>2026-04-02T05:51:37Z</time></trkpt><trkpt lat="43.12382025353443" lon="1.345243411439397"><ele>259.0</ele><time>2026-04-02T05:51:38Z</time></trkpt><trkpt lat="43.123686845242005" lon="1.3455048786426211"><ele>259.0</ele><time>2026-04-02T05:51:39Z</time></trkpt><trkpt lat="43.123551075961245" lon="1.3457605405595228"><ele>259.5</ele><time>2026-04-02T05:51:40Z</time></trkpt><trkpt lat="43.123415015003005" lon="1.3460246073705688"><ele>260.0</ele><time>2026-04-02T05:51:41Z</time></trkpt><trkpt lat="43.12327955977812" lon="1.3462896998271752"><ele>260.0</ele><time>2026-04-02T05:51:42Z</time></trkpt><trkpt lat="43.123128120863925" lon="1.3465462215773196"><ele>260.0</ele><time>2026-04-02T05:51:43Z</time></trkpt><trkpt lat="43.122998807676936" lon="1.346832485670728"><ele>260.0</ele><time>2026-04-02T05:51:44Z</time></trkpt><trkpt lat="43.12285119723677" lon="1.3471041443864116"><ele>260.0</ele><time>2026-04-02T05:51:45Z</time></trkpt><trkpt lat="43.12270811188822" lon="1.3473776142836"><ele>260.5</ele><time>2026-04-02T05:51:46Z</time></trkpt><trkpt lat="43.122566882076455" lon="1.347653005748736"><ele>261.0</ele><time>2026-04-02T05:51:47Z</time></trkpt><trkpt lat="43.12242283554191" lon="1.3479282208603234"><ele>261.0</ele><time>2026-04-02T05:51:48Z</time></trkpt><trkpt lat="43.122279278430895" lon="1.348198030087543"><ele>261.0</ele><time>2026-04-02T05:51:49Z</time></trkpt><trkpt lat="43.122136883623455" lon="1.348466674313976"><ele>261.0</ele><time>2026-04-02T05:51:50Z</time></trkpt><trkpt lat="43.12199486671015" lon="1.348732641532834"><ele>261.0</ele><time>2026-04-02T05:51:51Z</time></trkpt><trkpt lat="43.12185421327751" lon="1.3489969246446163"><ele>262.5</ele><time>2026-04-02T05:51:52Z</time></trkpt><trkpt lat="43.121716765123054" lon="1.3492607085597537"><ele>264.0</ele><time>2026-04-02T05:51:53Z</time></trkpt><trkpt lat="43.121581994832844" lon="1.3495218724972848"><ele>265.0</ele><time>2026-04-02T05:51:54Z</time></trkpt><trkpt lat="43.121448153908695" lon="1.3497793934079696"><ele>266.0</ele><time>2026-04-02T05:51:55Z</time></trkpt><trkpt lat="43.12131394568286" lon="1.3500330126706057"><ele>266.0</ele><time>2026-04-02T05:51:56Z</time></trkpt><trkpt lat="43.121180515265756" lon="1.3502853387958202"><ele>266.0</ele><time>2026-04-02T05:51:57Z</time></trkpt><trkpt lat="43.12104878525932" lon="1.3505388203133823"><ele>264.5</ele><time>2026-04-02T05:51:58Z</time></trkpt><trkpt lat="43.12091565694575" lon="1.3508005563950038"><ele>263.0</ele><time>2026-04-02T05:51:59Z</time></trkpt><trkpt lat="43.12078221745481" lon="1.3510593306643979"><ele>262.5</ele><time>2026-04-02T05:52:00Z</time></trkpt><trkpt lat="43.12064498179492" lon="1.351328955064695"><ele>262.0</ele><time>2026-04-02T05:52:01Z</time></trkpt><trkpt lat="43.120503439055966" lon="1.3516035148023113"><ele>261.5</ele><time>2026-04-02T05:52:02Z</time></trkpt><trkpt lat="43.120365062906394" lon="1.351847702735536"><ele>261.0</ele><time>2026-04-02T05:52:03Z</time></trkpt><trkpt lat="43.120219421308626" lon="1.3521102430688405"><ele>261.0</ele><time>2026-04-02T05:52:04Z</time></trkpt><trkpt lat="43.12007938024873" lon="1.352376921319618"><ele>261.0</ele><time>2026-04-02T05:52:05Z</time></trkpt><trkpt lat="43.1199417961453" lon="1.3526442373836414"><ele>260.5</ele><time>2026-04-02T05:52:06Z</time></trkpt><trkpt lat="43.11980783677458" lon="1.35291410867716"><ele>260.0</ele><time>2026-04-02T05:52:07Z</time></trkpt><trkpt lat="43.1196703793996" lon="1.3531824007635884"><ele>260.0</ele><time>2026-04-02T05:52:08Z</time></trkpt><trkpt lat="43.119529270146195" lon="1.3534469786855579"><ele>260.0</ele><time>2026-04-02T05:52:09Z</time></trkpt><trkpt lat="43.11939084141939" lon="1.3537115623643317"><ele>259.5</ele><time>2026-04-02T05:52:10Z</time></trkpt><trkpt lat="43.1192548891297" lon="1.3539752600685027"><ele>259.0</ele><time>2026-04-02T05:52:11Z</time></trkpt><trkpt lat="43.119117130708915" lon="1.3542359457846727"><ele>259.0</ele><time>2026-04-02T05:52:12Z</time></trkpt><trkpt lat="43.118979483050246" lon="1.3544955409487434"><ele>259.0</ele><time>2026-04-02T05:52:13Z</time></trkpt><trkpt lat="43.11884229245069" lon="1.354758324003036"><ele>258.5</ele><time>2026-04-02T05:52:14Z</time></trkpt><trkpt lat="43.118700333342325" lon="1.355035906645212"><ele>258.0</ele><time>2026-04-02T05:52:15Z</time></trkpt><trkpt lat="43.11855014746672" lon="1.3553267447411668"><ele>258.5</ele><time>2026-04-02T05:52:16Z</time></trkpt><trkpt lat="43.118393413085805" lon="1.355618452656296"><ele>259.0</ele><time>2026-04-02T05:52:17Z</time></trkpt><trkpt lat="43.11823942251449" lon="1.355902753679019"><ele>259.5</ele><time>2026-04-02T05:52:18Z</time></trkpt><trkpt lat="43.118093405512276" lon="1.356184905585427"><ele>260.0</ele><time>2026-04-02T05:52:19Z</time></trkpt><trkpt lat="43.11795015720999" lon="1.356466524272675"><ele>260.5</ele><time>2026-04-02T05:52:20Z</time></trkpt><trkpt lat="43.11780435311946" lon="1.3567408410505146"><ele>261.0</ele><time>2026-04-02T05:52:21Z</time></trkpt><trkpt lat="43.117659050949584" lon="1.3570130042957174"><ele>261.0</ele><time>2026-04-02T05:52:22Z</time></trkpt><trkpt lat="43.11751626511367" lon="1.3572900695896102"><ele>261.0</ele><time>2026-04-02T05:52:23Z</time></trkpt><trkpt lat="43.11737314945787" lon="1.3575715456343995"><ele>260.0</ele><time>2026-04-02T05:52:24Z</time></trkpt><trkpt lat="43.117230282100046" lon="1.3578474370889109"><ele>259.0</ele><time>2026-04-02T05:52:25Z</time></trkpt><trkpt lat="43.11708477780768" lon="1.358123741839825"><ele>259.0</ele><time>2026-04-02T05:52:26Z</time></trkpt><trkpt lat="43.11693913321832" lon="1.3584010384312302"><ele>259.0</ele><time>2026-04-02T05:52:27Z</time></trkpt><trkpt lat="43.11679302730768" lon="1.3586725651511746"><ele>259.5</ele><time>2026-04-02T05:52:28Z</time></trkpt><trkpt lat="43.116657150497346" lon="1.3589608574765148"><ele>260.0</ele><time>2026-04-02T05:52:29Z</time></trkpt><trkpt lat="43.11651390107492" lon="1.359248746472873"><ele>260.0</ele><time>2026-04-02T05:52:30Z</time></trkpt><trkpt lat="43.116364458322344" lon="1.3595236576392835"><ele>260.0</ele><time>2026-04-02T05:52:31Z</time></trkpt><trkpt lat="43.11621336586349" lon="1.3597954748087049"><ele>260.0</ele><time>2026-04-02T05:52:32Z</time></trkpt><trkpt lat="43.11606699682477" lon="1.3600778070027675"><ele>260.0</ele><time>2026-04-02T05:52:33Z</time></trkpt><trkpt lat="43.11592237889211" lon="1.3603540228007724"><ele>260.0</ele><time>2026-04-02T05:52:34Z</time></trkpt><trkpt lat="43.11577997601192" lon="1.3606230283958978"><ele>260.0</ele><time>2026-04-02T05:52:35Z</time></trkpt><trkpt lat="43.11564147651746" lon="1.3608955598374555"><ele>260.5</ele><time>2026-04-02T05:52:36Z</time></trkpt><trkpt lat="43.11550224610561" lon="1.3611662896465795"><ele>261.0</ele><time>2026-04-02T05:52:37Z</time></trkpt><trkpt lat="43.11535692189868" lon="1.3614310952303408"><ele>261.0</ele><time>2026-04-02T05:52:38Z</time></trkpt><trkpt lat="43.115209008411696" lon="1.3617082547713804"><ele>261.0</ele><time>2026-04-02T05:52:39Z</time></trkpt><trkpt lat="43.115063914369344" lon="1.3619890568963322"><ele>261.5</ele><time>2026-04-02T05:52:40Z</time></trkpt><trkpt lat="43.11492018715582" lon="1.3622673436653931"><ele>262.0</ele><time>2026-04-02T05:52:41Z</time></trkpt><trkpt lat="43.11477528470335" lon="1.3625444965616427"><ele>262.5</ele><time>2026-04-02T05:52:42Z</time></trkpt><trkpt lat="43.11462979797636" lon="1.362818513249665"><ele>263.0</ele><time>2026-04-02T05:52:43Z</time></trkpt><trkpt lat="43.1144836320526" lon="1.3630964445664793"><ele>263.5</ele><time>2026-04-02T05:52:44Z</time></trkpt><trkpt lat="43.11434117327437" lon="1.3633682868397312"><ele>264.0</ele><time>2026-04-02T05:52:45Z</time></trkpt><trkpt lat="43.11420039529163" lon="1.3636401835111376"><ele>264.0</ele><time>2026-04-02T05:52:46Z</time></trkpt><trkpt lat="43.114059246769976" lon="1.3639089145128327"><ele>264.0</ele><time>2026-04-02T05:52:47Z</time></trkpt><trkpt lat="43.113918610868154" lon="1.3641781881465727"><ele>264.0</ele><time>2026-04-02T05:52:48Z</time></trkpt><trkpt lat="43.11377853085188" lon="1.3644482751643277"><ele>264.0</ele><time>2026-04-02T05:52:49Z</time></trkpt><trkpt lat="43.11363796108068" lon="1.364720138660168"><ele>264.0</ele><time>2026-04-02T05:52:50Z</time></trkpt><trkpt lat="43.113496495831235" lon="1.3649841744340538"><ele>264.0</ele><time>2026-04-02T05:52:51Z</time></trkpt><trkpt lat="43.11335156299627" lon="1.365258233257862"><ele>264.0</ele><time>2026-04-02T05:52:52Z</time></trkpt><trkpt lat="43.11320711112995" lon="1.3655295323794485"><ele>264.0</ele><time>2026-04-02T05:52:53Z</time></trkpt><trkpt lat="43.113064148027675" lon="1.3658048390078308"><ele>264.0</ele><time>2026-04-02T05:52:54Z</time></trkpt><trkpt lat="43.112917538904796" lon="1.3660945323474223"><ele>264.0</ele><time>2026-04-02T05:52:55Z</time></trkpt><trkpt lat="43.11277149833333" lon="1.366380334077036"><ele>263.5</ele><time>2026-04-02T05:52:56Z</time></trkpt><trkpt lat="43.11262500355797" lon="1.366655763691294"><ele>263.0</ele><time>2026-04-02T05:52:57Z</time></trkpt><trkpt lat="43.11247968690029" lon="1.3669287513212511"><ele>263.5</ele><time>2026-04-02T05:52:58Z</time></trkpt><trkpt lat="43.112339564116986" lon="1.36720385743937"><ele>264.0</ele><time>2026-04-02T05:52:59Z</time></trkpt><trkpt lat="43.112201198957756" lon="1.36748010774147"><ele>264.0</ele><time>2026-04-02T05:53:00Z</time></trkpt><trkpt lat="43.11206063254645" lon="1.367747313855621"><ele>264.0</ele><time>2026-04-02T05:53:01Z</time></trkpt><trkpt lat="43.11191861803616" lon="1.3680193767773856"><ele>264.5</ele><time>2026-04-02T05:53:02Z</time></trkpt><trkpt lat="43.11177750826182" lon="1.3682921781666226"><ele>265.0</ele><time>2026-04-02T05:53:03Z</time></trkpt><trkpt lat="43.11163721057839" lon="1.3685650567623173"><ele>265.0</ele><time>2026-04-02T05:53:04Z</time></trkpt><trkpt lat="43.11149490472953" lon="1.3688409143421552"><ele>265.0</ele><time>2026-04-02T05:53:05Z</time></trkpt><trkpt lat="43.111348194211715" lon="1.3691148924170575"><ele>265.0</ele><time>2026-04-02T05:53:06Z</time></trkpt><trkpt lat="43.11120186335925" lon="1.3693864825566924"><ele>265.0</ele><time>2026-04-02T05:53:07Z</time></trkpt><trkpt lat="43.111056162173085" lon="1.3696633165912606"><ele>265.0</ele><time>2026-04-02T05:53:08Z</time></trkpt><trkpt lat="43.11091096708242" lon="1.3699345907433436"><ele>265.0</ele><time>2026-04-02T05:53:09Z</time></trkpt><trkpt lat="43.11076474947097" lon="1.3702057732217106"><ele>265.0</ele><time>2026-04-02T05:53:10Z</time></trkpt><trkpt lat="43.11062206246794" lon="1.3704810853206246"><ele>265.0</ele><time>2026-04-02T05:53:11Z</time></trkpt><trkpt lat="43.110482186944104" lon="1.3707588851786243"><ele>266.0</ele><time>2026-04-02T05:53:12Z</time></trkpt><trkpt lat="43.110342072784086" lon="1.371029186752936"><ele>267.0</ele><time>2026-04-02T05:53:13Z</time></trkpt><trkpt lat="43.11019834399843" lon="1.3712989104759614"><ele>267.5</ele><time>2026-04-02T05:53:14Z</time></trkpt><trkpt lat="43.11005598041021" lon="1.3715695347383206"><ele>268.0</ele><time>2026-04-02T05:53:15Z</time></trkpt><trkpt lat="43.109916325038235" lon="1.3718430584786432"><ele>267.5</ele><time>2026-04-02T05:53:16Z</time></trkpt><trkpt lat="43.10977934652905" lon="1.3721118256681997"><ele>267.0</ele><time>2026-04-02T05:53:17Z</time></trkpt><trkpt lat="43.1096442262954" lon="1.3723740263671482"><ele>268.5</ele><time>2026-04-02T05:53:18Z</time></trkpt><trkpt lat="43.10951009874593" lon="1.3726307758799774"><ele>270.0</ele><time>2026-04-02T05:53:19Z</time></trkpt><trkpt lat="43.10937752023306" lon="1.3728763997295501"><ele>270.3333333333333</ele><time>2026-04-02T05:53:20Z</time></trkpt><trkpt lat="43.10925462657962" lon="1.3731011538838531"><ele>270.66666666666663</ele><time>2026-04-02T05:53:21Z</time></trkpt><trkpt lat="43.109149321482626" lon="1.373306651603057"><ele>271.0</ele><time>2026-04-02T05:53:22Z</time></trkpt><trkpt lat="43.10905385802189" lon="1.3734940716034423"><ele>271.0</ele><time>2026-04-02T05:53:23Z</time></trkpt><trkpt lat="43.108965705108574" lon="1.3736621382370615"><ele>271.0</ele><time>2026-04-02T05:53:24Z</time></trkpt><trkpt lat="43.10888054415195" lon="1.3738139398763758"><ele>271.0</ele><time>2026-04-02T05:53:25Z</time></trkpt><trkpt lat="43.10879214099179" lon="1.37393629468289"><ele>271.0</ele><time>2026-04-02T05:53:26Z</time></trkpt><trkpt lat="43.10870943796968" lon="1.3740612703509136"><ele>271.0</ele><time>2026-04-02T05:53:27Z</time></trkpt><trkpt lat="43.108652265667125" lon="1.3741992438700816"><ele>271.0</ele><time>2026-04-02T05:53:28Z</time></trkpt><trkpt lat="43.108616702985636" lon="1.3743362219356547"><ele>271.0</ele><time>2026-04-02T05:53:29Z</time></trkpt><trkpt lat="43.10856522274452" lon="1.3744465658318268"><ele>271.0</ele><time>2026-04-02T05:53:30Z</time></trkpt><trkpt lat="43.10850617820126" lon="1.374545699662146"><ele>271.0</ele><time>2026-04-02T05:53:31Z</time></trkpt><trkpt lat="43.10845467945524" lon="1.3746449488346526"><ele>271.0</ele><time>2026-04-02T05:53:32Z</time></trkpt><trkpt lat="43.10840628790806" lon="1.3747462540615711"><ele>271.0</ele><time>2026-04-02T05:53:33Z</time></trkpt><trkpt lat="43.10836002368156" lon="1.3748346043601927"><ele>271.0</ele><time>2026-04-02T05:53:34Z</time></trkpt><trkpt lat="43.108315588992575" lon="1.3749168025343763"><ele>271.0</ele><time>2026-04-02T05:53:35Z</time></trkpt><trkpt lat="43.10827074684194" lon="1.375001197455022"><ele>271.0</ele><time>2026-04-02T05:53:36Z</time></trkpt><trkpt lat="43.10822093467348" lon="1.3750956027349668"><ele>271.0</ele><time>2026-04-02T05:53:37Z</time></trkpt><trkpt lat="43.10816520661421" lon="1.37520241125049"><ele>271.0</ele><time>2026-04-02T05:53:38Z</time></trkpt><trkpt lat="43.108106693560615" lon="1.3753085250280839"><ele>271.0</ele><time>2026-04-02T05:53:39Z</time></trkpt><trkpt lat="43.10805683388217" lon="1.3754083685143317"><ele>271.0</ele><time>2026-04-02T05:53:40Z</time></trkpt><trkpt lat="43.10801443618627" lon="1.3754970521676784"><ele>271.0</ele><time>2026-04-02T05:53:41Z</time></trkpt><trkpt lat="43.10797263418399" lon="1.3755809031919064"><ele>271.0</ele><time>2026-04-02T05:53:42Z</time></trkpt><trkpt lat="43.10792016538994" lon="1.3756889131632382"><ele>271.0</ele><time>2026-04-02T05:53:43Z</time></trkpt><trkpt lat="43.107843749152295" lon="1.3758310221574406"><ele>271.0</ele><time>2026-04-02T05:53:44Z</time></trkpt><trkpt lat="43.107748739407185" lon="1.3760044241089546"><ele>271.0</ele><time>2026-04-02T05:53:45Z</time></trkpt><trkpt lat="43.107654482791546" lon="1.376183452739925"><ele>271.0</ele><time>2026-04-02T05:53:46Z</time></trkpt><trkpt lat="43.107552663336364" lon="1.3763825434502133"><ele>270.66666666666663</ele><time>2026-04-02T05:53:47Z</time></trkpt><trkpt lat="43.10743665112727" lon="1.3766068074866207"><ele>270.3333333333333</ele><time>2026-04-02T05:53:48Z</time></trkpt><trkpt lat="43.107303644736454" lon="1.376854649926551"><ele>270.0</ele><time>2026-04-02T05:53:49Z</time></trkpt><trkpt lat="43.107175443844426" lon="1.3770944172904276"><ele>269.5</ele><time>2026-04-02T05:53:50Z</time></trkpt><trkpt lat="43.107050779516605" lon="1.3773377063785122"><ele>269.0</ele><time>2026-04-02T05:53:51Z</time></trkpt><trkpt lat="43.10691270329578" lon="1.3776097066741624"><ele>269.0</ele><time>2026-04-02T05:53:52Z</time></trkpt><trkpt lat="43.10676859034786" lon="1.3778860964318114"><ele>269.0</ele><time>2026-04-02T05:53:53Z</time></trkpt><trkpt lat="43.10661904731723" lon="1.3781678242783646"><ele>268.5</ele><time>2026-04-02T05:53:54Z</time></trkpt><trkpt lat="43.106471891645356" lon="1.378445109580862"><ele>268.0</ele><time>2026-04-02T05:53:55Z</time></trkpt><trkpt lat="43.10632444309671" lon="1.3787271939199899"><ele>269.0</ele><time>2026-04-02T05:53:56Z</time></trkpt><trkpt lat="43.10617870604353" lon="1.379007568115893"><ele>270.0</ele><time>2026-04-02T05:53:57Z</time></trkpt><trkpt lat="43.10603155633013" lon="1.3792892398679537"><ele>270.0</ele><time>2026-04-02T05:53:58Z</time></trkpt><trkpt lat="43.10588837385437" lon="1.3795675048479625"><ele>270.0</ele><time>2026-04-02T05:53:59Z</time></trkpt><trkpt lat="43.10574269725355" lon="1.3798476535943698"><ele>269.5</ele><time>2026-04-02T05:54:00Z</time></trkpt><trkpt lat="43.10559316409912" lon="1.3801291690288615"><ele>269.0</ele><time>2026-04-02T05:54:01Z</time></trkpt><trkpt lat="43.10544567295512" lon="1.3804106750365575"><ele>268.5</ele><time>2026-04-02T05:54:02Z</time></trkpt><trkpt lat="43.10529676070743" lon="1.3807012185185816"><ele>268.0</ele><time>2026-04-02T05:54:03Z</time></trkpt><trkpt lat="43.10515246700444" lon="1.3809845827377725"><ele>268.0</ele><time>2026-04-02T05:54:04Z</time></trkpt><trkpt lat="43.10500332605339" lon="1.3812720198645183"><ele>268.0</ele><time>2026-04-02T05:54:05Z</time></trkpt><trkpt lat="43.10485463891372" lon="1.3815575971593812"><ele>268.0</ele><time>2026-04-02T05:54:06Z</time></trkpt><trkpt lat="43.104706592384225" lon="1.3818479071789336"><ele>268.0</ele><time>2026-04-02T05:54:07Z</time></trkpt><trkpt lat="43.10455635117064" lon="1.3821419112330053"><ele>268.5</ele><time>2026-04-02T05:54:08Z</time></trkpt><trkpt lat="43.10440551124518" lon="1.3824317558874863"><ele>269.0</ele><time>2026-04-02T05:54:09Z</time></trkpt><trkpt lat="43.104253951198416" lon="1.3827195855801557"><ele>269.0</ele><time>2026-04-02T05:54:10Z</time></trkpt><trkpt lat="43.10410188479436" lon="1.3830040784806363"><ele>269.0</ele><time>2026-04-02T05:54:11Z</time></trkpt><trkpt lat="43.103951389355444" lon="1.3832922086822819"><ele>269.0</ele><time>2026-04-02T05:54:12Z</time></trkpt><trkpt lat="43.10380301711963" lon="1.3835772685109817"><ele>269.0</ele><time>2026-04-02T05:54:13Z</time></trkpt><trkpt lat="43.10365165064746" lon="1.38387350675747"><ele>269.5</ele><time>2026-04-02T05:54:14Z</time></trkpt><trkpt lat="43.10350614700291" lon="1.3841561546347552"><ele>270.0</ele><time>2026-04-02T05:54:15Z</time></trkpt><trkpt lat="43.10335911195198" lon="1.384442389310635"><ele>268.5</ele><time>2026-04-02T05:54:16Z</time></trkpt><trkpt lat="43.103210402607154" lon="1.3847252514719088"><ele>267.0</ele><time>2026-04-02T05:54:17Z</time></trkpt><trkpt lat="43.103059584566125" lon="1.3850175112707623"><ele>267.0</ele><time>2026-04-02T05:54:18Z</time></trkpt><trkpt lat="43.1029061060199" lon="1.3853075650076514"><ele>267.0</ele><time>2026-04-02T05:54:19Z</time></trkpt><trkpt lat="43.1027491564766" lon="1.385619154489603"><ele>268.0</ele><time>2026-04-02T05:54:20Z</time></trkpt><trkpt lat="43.10258750295259" lon="1.3859459692806264"><ele>269.0</ele><time>2026-04-02T05:54:21Z</time></trkpt><trkpt lat="43.10241540670912" lon="1.3862671846191883"><ele>268.0</ele><time>2026-04-02T05:54:22Z</time></trkpt><trkpt lat="43.10224990743859" lon="1.38656728125117"><ele>267.0</ele><time>2026-04-02T05:54:23Z</time></trkpt><trkpt lat="43.10209572082121" lon="1.3868684300043643"><ele>267.0</ele><time>2026-04-02T05:54:24Z</time></trkpt><trkpt lat="43.10194555143619" lon="1.387167253726979"><ele>267.0</ele><time>2026-04-02T05:54:25Z</time></trkpt><trkpt lat="43.10179466424968" lon="1.387458678620667"><ele>268.5</ele><time>2026-04-02T05:54:26Z</time></trkpt><trkpt lat="43.10164185428286" lon="1.387748095370522"><ele>270.0</ele><time>2026-04-02T05:54:27Z</time></trkpt><trkpt lat="43.10150368816038" lon="1.388013153485449"><ele>270.0</ele><time>2026-04-02T05:54:28Z</time></trkpt><trkpt lat="43.10137682826827" lon="1.3882598608252492"><ele>270.0</ele><time>2026-04-02T05:54:29Z</time></trkpt><trkpt lat="43.10125782915197" lon="1.3884918027998425"><ele>270.0</ele><time>2026-04-02T05:54:30Z</time></trkpt><trkpt lat="43.1011445473148" lon="1.388708572374533"><ele>270.6666666666667</ele><time>2026-04-02T05:54:31Z</time></trkpt><trkpt lat="43.101038165901265" lon="1.3889090087428384"><ele>271.33333333333337</ele><time>2026-04-02T05:54:32Z</time></trkpt><trkpt lat="43.100936350571835" lon="1.3891048891613234"><ele>272.0</ele><time>2026-04-02T05:54:33Z</time></trkpt><trkpt lat="43.10084908784847" lon="1.3892815892936856"><ele>272.0</ele><time>2026-04-02T05:54:34Z</time></trkpt><trkpt lat="43.10077143746269" lon="1.3894395198345204"><ele>272.0</ele><time>2026-04-02T05:54:35Z</time></trkpt><trkpt lat="43.10070304784039" lon="1.38957088931851"><ele>272.0</ele><time>2026-04-02T05:54:36Z</time></trkpt><trkpt lat="43.10065342138916" lon="1.3896521628898486"><ele>272.0</ele><time>2026-04-02T05:54:37Z</time></trkpt><trkpt lat="43.10058286712662" lon="1.389717983478957"><ele>272.0</ele><time>2026-04-02T05:54:39Z</time></trkpt><trkpt lat="43.10045844710231" lon="1.3895969658747813"><ele>271.6666666666667</ele><time>2026-04-02T05:54:42Z</time></trkpt><trkpt lat="43.100389063660124" lon="1.3895258962008823"><ele>271.33333333333337</ele><time>2026-04-02T05:54:43Z</time></trkpt><trkpt lat="43.10033808133991" lon="1.3894633583833476"><ele>271.0</ele><time>2026-04-02T05:54:44Z</time></trkpt><trkpt lat="43.100274853808266" lon="1.3894001399251716"><ele>270.6666666666667</ele><time>2026-04-02T05:54:45Z</time></trkpt><trkpt lat="43.10022068662747" lon="1.3893421353758089"><ele>270.3333333333333</ele><time>2026-04-02T05:54:46Z</time></trkpt><trkpt lat="43.10012681829022" lon="1.3892346847210841"><ele>270.0</ele><time>2026-04-02T05:54:48Z</time></trkpt><trkpt lat="43.100052937232256" lon="1.3891721481036947"><ele>270.0</ele><time>2026-04-02T05:54:49Z</time></trkpt><trkpt lat="43.099984011128946" lon="1.3890910703571022"><ele>270.0</ele><time>2026-04-02T05:54:50Z</time></trkpt><trkpt lat="43.09992400127914" lon="1.3890168217632277"><ele>270.0</ele><time>2026-04-02T05:54:51Z</time></trkpt><trkpt lat="43.09985817153051" lon="1.388958428862659"><ele>270.0</ele><time>2026-04-02T05:54:52Z</time></trkpt><trkpt lat="43.09979766032025" lon="1.3889047367110965"><ele>270.0</ele><time>2026-04-02T05:54:53Z</time></trkpt><trkpt lat="43.099741910136075" lon="1.3888513714224362"><ele>270.0</ele><time>2026-04-02T05:54:54Z</time></trkpt><trkpt lat="43.099693979603636" lon="1.3887930162343387"><ele>270.1666666666667</ele><time>2026-04-02T05:54:55Z</time></trkpt><trkpt lat="43.099643434493956" lon="1.3887321722147639"><ele>270.3333333333333</ele><time>2026-04-02T05:54:56Z</time></trkpt><trkpt lat="43.09956895057437" lon="1.3886393222713085"><ele>270.5</ele><time>2026-04-02T05:54:58Z</time></trkpt><trkpt lat="43.09949915398229" lon="1.3885374075030006"><ele>270.66666666666663</ele><time>2026-04-02T05:55:00Z</time></trkpt><trkpt lat="43.09943862013932" lon="1.3884813817788801"><ele>270.8333333333333</ele><time>2026-04-02T05:55:01Z</time></trkpt><trkpt lat="43.099370023081256" lon="1.38842028953754"><ele>271.0</ele><time>2026-04-02T05:55:02Z</time></trkpt><trkpt lat="43.0993131556514" lon="1.3883357755094958"><ele>271.0</ele><time>2026-04-02T05:55:03Z</time></trkpt><trkpt lat="43.09926071658689" lon="1.3882840559894596"><ele>271.0</ele><time>2026-04-02T05:55:04Z</time></trkpt><trkpt lat="43.099182760898096" lon="1.388207169908817"><ele>271.0</ele><time>2026-04-02T05:55:06Z</time></trkpt><trkpt lat="43.09911943324678" lon="1.388142465021303"><ele>271.0</ele><time>2026-04-02T05:55:22Z</time></trkpt><trkpt lat="43.09906477128077" lon="1.3880814061066804"><ele>271.0</ele><time>2026-04-02T05:55:26Z</time></trkpt><trkpt lat="43.099016618794955" lon="1.387993923839601"><ele>271.0</ele><time>2026-04-02T05:55:29Z</time></trkpt><trkpt lat="43.09894944647737" lon="1.3878809994562886"><ele>271.0</ele><time>2026-04-02T05:55:31Z</time></trkpt><trkpt lat="43.09890697516635" lon="1.3878096002802638"><ele>271.0</ele><time>2026-04-02T05:55:32Z</time></trkpt><trkpt lat="43.0988672408648" lon="1.3877414345558396"><ele>271.0</ele><time>2026-04-02T05:55:33Z</time></trkpt><trkpt lat="43.09882263880336" lon="1.3876650552044645"><ele>271.0</ele><time>2026-04-02T05:55:34Z</time></trkpt><trkpt lat="43.09877170646248" lon="1.3875781767058477"><ele>271.0</ele><time>2026-04-02T05:55:35Z</time></trkpt><trkpt lat="43.09871592650001" lon="1.3874858657881308"><ele>271.0</ele><time>2026-04-02T05:55:36Z</time></trkpt><trkpt lat="43.09866407148911" lon="1.3874035914474527"><ele>271.0</ele><time>2026-04-02T05:55:37Z</time></trkpt><trkpt lat="43.09861852035287" lon="1.387332965797911"><ele>271.0</ele><time>2026-04-02T05:55:38Z</time></trkpt><trkpt lat="43.09854390766328" lon="1.3872172811100636"><ele>271.0</ele><time>2026-04-02T05:55:40Z</time></trkpt><trkpt lat="43.09847735641168" lon="1.3871109217088256"><ele>271.0</ele><time>2026-04-02T05:55:42Z</time></trkpt><trkpt lat="43.098430562021456" lon="1.3870354071827329"><ele>271.0</ele><time>2026-04-02T05:55:43Z</time></trkpt><trkpt lat="43.098380591460824" lon="1.3869526665173435"><ele>271.0</ele><time>2026-04-02T05:55:44Z</time></trkpt><trkpt lat="43.098328245134965" lon="1.3868710750121787"><ele>271.0</ele><time>2026-04-02T05:55:45Z</time></trkpt><trkpt lat="43.09827498786154" lon="1.3867868429690682"><ele>271.0</ele><time>2026-04-02T05:55:46Z</time></trkpt><trkpt lat="43.0982192001296" lon="1.3867217114197092"><ele>271.0</ele><time>2026-04-02T05:55:47Z</time></trkpt><trkpt lat="43.098180009773195" lon="1.386649747471809"><ele>271.0</ele><time>2026-04-02T05:55:48Z</time></trkpt><trkpt lat="43.098097932447246" lon="1.3865398817956387"><ele>271.0</ele><time>2026-04-02T05:55:50Z</time></trkpt><trkpt lat="43.09804758216395" lon="1.3864716108503874"><ele>271.0</ele><time>2026-04-02T05:55:52Z</time></trkpt><trkpt lat="43.09798452356012" lon="1.3864720150465297"><ele>271.0</ele><time>2026-04-02T05:55:56Z</time></trkpt><trkpt lat="43.098088588243506" lon="1.3866067988327697"><ele>271.0</ele><time>2026-04-02T05:55:59Z</time></trkpt><trkpt lat="43.0981696697613" lon="1.3867027958719098"><ele>271.0</ele><time>2026-04-02T05:56:01Z</time></trkpt><trkpt lat="43.09822416147385" lon="1.3867756406592426"><ele>271.0</ele><time>2026-04-02T05:56:02Z</time></trkpt><trkpt lat="43.09827977884217" lon="1.3868469682794675"><ele>271.0</ele><time>2026-04-02T05:56:03Z</time></trkpt><trkpt lat="43.098347069134036" lon="1.3869487469157429"><ele>271.0</ele><time>2026-04-02T05:56:05Z</time></trkpt><trkpt lat="43.09838392080069" lon="1.3870193774687054"><ele>271.0</ele><time>2026-04-02T05:56:13Z</time></trkpt><trkpt lat="43.098423359564514" lon="1.3870889188148556"><ele>271.0</ele><time>2026-04-02T05:56:14Z</time></trkpt><trkpt lat="43.098474629844496" lon="1.3871667243158115"><ele>271.0</ele><time>2026-04-02T05:56:15Z</time></trkpt><trkpt lat="43.09852306696027" lon="1.3872492333543054"><ele>271.0</ele><time>2026-04-02T05:56:16Z</time></trkpt><trkpt lat="43.09858474853411" lon="1.3873438514462866"><ele>271.0</ele><time>2026-04-02T05:56:17Z</time></trkpt><trkpt lat="43.098649394016526" lon="1.3874385566966936"><ele>271.0</ele><time>2026-04-02T05:56:18Z</time></trkpt><trkpt lat="43.09870314342096" lon="1.3875246502440826"><ele>271.0</ele><time>2026-04-02T05:56:19Z</time></trkpt><trkpt lat="43.09876495289985" lon="1.3876241751248513"><ele>271.0</ele><time>2026-04-02T05:56:20Z</time></trkpt><trkpt lat="43.09882800260259" lon="1.3877326857890708"><ele>271.0</ele><time>2026-04-02T05:56:21Z</time></trkpt><trkpt lat="43.09889094578316" lon="1.3878440201741802"><ele>271.0</ele><time>2026-04-02T05:56:22Z</time></trkpt><trkpt lat="43.098954166560915" lon="1.3879528920912512"><ele>271.0</ele><time>2026-04-02T05:56:23Z</time></trkpt><trkpt lat="43.099012007598546" lon="1.3880549058682998"><ele>271.0</ele><time>2026-04-02T05:56:24Z</time></trkpt><trkpt lat="43.09906840416698" lon="1.3881339774166361"><ele>271.0</ele><time>2026-04-02T05:56:25Z</time></trkpt><trkpt lat="43.09912325697081" lon="1.3882038729641373"><ele>271.0</ele><time>2026-04-02T05:56:26Z</time></trkpt><trkpt lat="43.09918681830356" lon="1.3882662544555708"><ele>271.0</ele><time>2026-04-02T05:56:27Z</time></trkpt><trkpt lat="43.09925957064014" lon="1.3883259264806507"><ele>271.0</ele><time>2026-04-02T05:56:28Z</time></trkpt><trkpt lat="43.09932408300094" lon="1.3884045253765762"><ele>271.0</ele><time>2026-04-02T05:56:29Z</time></trkpt><trkpt lat="43.09938152287597" lon="1.3884689363180578"><ele>271.0</ele><time>2026-04-02T05:56:30Z</time></trkpt><trkpt lat="43.099441019588866" lon="1.3885217982301186"><ele>271.0</ele><time>2026-04-02T05:56:31Z</time></trkpt><trkpt lat="43.09952228015966" lon="1.3886281089525045"><ele>271.0</ele><time>2026-04-02T05:56:33Z</time></trkpt><trkpt lat="43.09959823706236" lon="1.3887360970433162"><ele>271.0</ele><time>2026-04-02T05:56:35Z</time></trkpt><trkpt lat="43.099679252590086" lon="1.3888294843446984"><ele>270.8333333333333</ele><time>2026-04-02T05:56:37Z</time></trkpt><trkpt lat="43.09976247229633" lon="1.3889285517475036"><ele>270.66666666666663</ele><time>2026-04-02T05:56:39Z</time></trkpt><trkpt lat="43.09981605176535" lon="1.3889829585076665"><ele>270.5</ele><time>2026-04-02T05:56:40Z</time></trkpt><trkpt lat="43.09987294037758" lon="1.3890420534866486"><ele>270.3333333333333</ele><time>2026-04-02T05:56:41Z</time></trkpt><trkpt lat="43.09993334702977" lon="1.3891073468571946"><ele>270.1666666666667</ele><time>2026-04-02T05:56:42Z</time></trkpt><trkpt lat="43.09999885555241" lon="1.3891790689059955"><ele>270.0</ele><time>2026-04-02T05:56:43Z</time></trkpt><trkpt lat="43.100065965673906" lon="1.38925313350993"><ele>270.0</ele><time>2026-04-02T05:56:44Z</time></trkpt><trkpt lat="43.100137399466576" lon="1.3893291709871034"><ele>270.0</ele><time>2026-04-02T05:56:45Z</time></trkpt><trkpt lat="43.10020530204422" lon="1.3894093413156752"><ele>270.0</ele><time>2026-04-02T05:56:46Z</time></trkpt><trkpt lat="43.100278737630944" lon="1.3894919354917057"><ele>270.0</ele><time>2026-04-02T05:56:47Z</time></trkpt><trkpt lat="43.10035297122985" lon="1.3895701923513777"><ele>270.0</ele><time>2026-04-02T05:56:48Z</time></trkpt><trkpt lat="43.10041434904373" lon="1.389645304618986"><ele>270.8</ele><time>2026-04-02T05:56:49Z</time></trkpt><trkpt lat="43.10046984593703" lon="1.3897052880305407"><ele>271.6</ele><time>2026-04-02T05:56:50Z</time></trkpt><trkpt lat="43.10052546989582" lon="1.389770774702563"><ele>272.4</ele><time>2026-04-02T05:56:52Z</time></trkpt><trkpt lat="43.10061552123707" lon="1.3898682312293063"><ele>273.2</ele><time>2026-04-02T05:56:56Z</time></trkpt><trkpt lat="43.10069109013906" lon="1.3899267185076924"><ele>274.0</ele><time>2026-04-02T05:56:57Z</time></trkpt><trkpt lat="43.10077651393311" lon="1.390022676668192"><ele>274.0</ele><time>2026-04-02T05:56:58Z</time></trkpt><trkpt lat="43.100872670282214" lon="1.3901354364655922"><ele>274.0</ele><time>2026-04-02T05:56:59Z</time></trkpt><trkpt lat="43.10097824683379" lon="1.3902622426033961"><ele>274.0</ele><time>2026-04-02T05:57:00Z</time></trkpt><trkpt lat="43.101090870303814" lon="1.3903842671897952"><ele>274.0</ele><time>2026-04-02T05:57:01Z</time></trkpt><trkpt lat="43.10119599374555" lon="1.390537459397476"><ele>274.0</ele><time>2026-04-02T05:57:02Z</time></trkpt><trkpt lat="43.101318144094684" lon="1.390678778856963"><ele>274.0</ele><time>2026-04-02T05:57:03Z</time></trkpt><trkpt lat="43.10144437489765" lon="1.3908230270374067"><ele>274.0</ele><time>2026-04-02T05:57:04Z</time></trkpt><trkpt lat="43.10158385406405" lon="1.39095451231135"><ele>274.66666666666663</ele><time>2026-04-02T05:57:05Z</time></trkpt><trkpt lat="43.10169900250641" lon="1.3911062254129212"><ele>275.3333333333333</ele><time>2026-04-02T05:57:06Z</time></trkpt><trkpt lat="43.10180732931221" lon="1.3912611232537868"><ele>276.0</ele><time>2026-04-02T05:57:07Z</time></trkpt><trkpt lat="43.10189295617792" lon="1.3914240880524842"><ele>276.75</ele><time>2026-04-02T05:57:08Z</time></trkpt><trkpt lat="43.10190261690111" lon="1.3916072008911806"><ele>277.5</ele><time>2026-04-02T05:57:09Z</time></trkpt><trkpt lat="43.10190655542334" lon="1.3917854258776614"><ele>278.25</ele><time>2026-04-02T05:57:10Z</time></trkpt><trkpt lat="43.10191400089428" lon="1.3919890341510521"><ele>279.0</ele><time>2026-04-02T05:57:11Z</time></trkpt><trkpt lat="43.10189016799977" lon="1.3922073108122437"><ele>279.6666666666667</ele><time>2026-04-02T05:57:12Z</time></trkpt><trkpt lat="43.10186775165912" lon="1.3924349857989937"><ele>280.33333333333337</ele><time>2026-04-02T05:57:13Z</time></trkpt><trkpt lat="43.101848066382594" lon="1.392670237947238"><ele>281.0</ele><time>2026-04-02T05:57:14Z</time></trkpt><trkpt lat="43.1018286263908" lon="1.3928957076622046"><ele>282.0</ele><time>2026-04-02T05:57:15Z</time></trkpt><trkpt lat="43.101806107850614" lon="1.3930917152117186"><ele>283.0</ele><time>2026-04-02T05:57:16Z</time></trkpt><trkpt lat="43.10178732041028" lon="1.3932710290441102"><ele>284.0</ele><time>2026-04-02T05:57:17Z</time></trkpt><trkpt lat="43.1017703337652" lon="1.3934653964239507"><ele>285.0</ele><time>2026-04-02T05:57:18Z</time></trkpt><trkpt lat="43.10175349934986" lon="1.393687649450255"><ele>286.3333333333333</ele><time>2026-04-02T05:57:19Z</time></trkpt><trkpt lat="43.10173087962794" lon="1.3939278909551396"><ele>287.66666666666663</ele><time>2026-04-02T05:57:20Z</time></trkpt><trkpt lat="43.10170480590309" lon="1.3941764883592702"><ele>289.0</ele><time>2026-04-02T05:57:21Z</time></trkpt><trkpt lat="43.10167529343848" lon="1.3944360341622823"><ele>290.66666666666663</ele><time>2026-04-02T05:57:22Z</time></trkpt><trkpt lat="43.101648455602025" lon="1.3946967769639866"><ele>292.3333333333333</ele><time>2026-04-02T05:57:23Z</time></trkpt><trkpt lat="43.1016249755317" lon="1.3949565125555285"><ele>294.0</ele><time>2026-04-02T05:57:24Z</time></trkpt><trkpt lat="43.10159861102099" lon="1.3952135623775896"><ele>296.6666666666667</ele><time>2026-04-02T05:57:25Z</time></trkpt><trkpt lat="43.10156141873423" lon="1.3954612507707018"><ele>299.33333333333337</ele><time>2026-04-02T05:57:26Z</time></trkpt><trkpt lat="43.101514491262684" lon="1.3956976808972614"><ele>302.0</ele><time>2026-04-02T05:57:27Z</time></trkpt><trkpt lat="43.10145303223709" lon="1.395925502180154"><ele>302.6666666666667</ele><time>2026-04-02T05:57:28Z</time></trkpt><trkpt lat="43.10137455388517" lon="1.3961424042001223"><ele>303.3333333333333</ele><time>2026-04-02T05:57:29Z</time></trkpt><trkpt lat="43.10128813381767" lon="1.396349829311476"><ele>304.0</ele><time>2026-04-02T05:57:30Z</time></trkpt><trkpt lat="43.10120318977116" lon="1.3965513950183392"><ele>304.3333333333333</ele><time>2026-04-02T05:57:31Z</time></trkpt><trkpt lat="43.101123394536586" lon="1.3967480764309952"><ele>304.6666666666667</ele><time>2026-04-02T05:57:32Z</time></trkpt><trkpt lat="43.101053989962665" lon="1.396953561690639"><ele>305.0</ele><time>2026-04-02T05:57:33Z</time></trkpt><trkpt lat="43.10100200562477" lon="1.3971874714748624"><ele>306.33333333333337</ele><time>2026-04-02T05:57:34Z</time></trkpt><trkpt lat="43.10095221510947" lon="1.3974432519461601"><ele>307.6666666666667</ele><time>2026-04-02T05:57:35Z</time></trkpt><trkpt lat="43.1008960956727" lon="1.3977087858877342"><ele>309.0</ele><time>2026-04-02T05:57:36Z</time></trkpt><trkpt lat="43.10084203676234" lon="1.3979827009531458"><ele>310.6666666666667</ele><time>2026-04-02T05:57:37Z</time></trkpt><trkpt lat="43.10078786822688" lon="1.3982672354161572"><ele>312.33333333333337</ele><time>2026-04-02T05:57:38Z</time></trkpt><trkpt lat="43.10073026544775" lon="1.3985537917652406"><ele>314.0</ele><time>2026-04-02T05:57:39Z</time></trkpt><trkpt lat="43.10066916129474" lon="1.3988375533681492"><ele>316.6666666666667</ele><time>2026-04-02T05:57:40Z</time></trkpt><trkpt lat="43.10060831764054" lon="1.3991142825500746"><ele>319.3333333333333</ele><time>2026-04-02T05:57:41Z</time></trkpt><trkpt lat="43.10054797390498" lon="1.3993960090756548"><ele>322.0</ele><time>2026-04-02T05:57:42Z</time></trkpt><trkpt lat="43.100491054630886" lon="1.3996708784366372"><ele>322.3333333333333</ele><time>2026-04-02T05:57:43Z</time></trkpt><trkpt lat="43.100432188743255" lon="1.3999459338543874"><ele>322.6666666666667</ele><time>2026-04-02T05:57:44Z</time></trkpt><trkpt lat="43.10037446278406" lon="1.4002106829432004"><ele>323.0</ele><time>2026-04-02T05:57:45Z</time></trkpt><trkpt lat="43.10032075500442" lon="1.40045926066116"><ele>324.0</ele><time>2026-04-02T05:57:46Z</time></trkpt><trkpt lat="43.10027408881498" lon="1.4006784738264286"><ele>325.0</ele><time>2026-04-02T05:57:47Z</time></trkpt><trkpt lat="43.1002331160137" lon="1.400877840592017"><ele>326.0</ele><time>2026-04-02T05:57:48Z</time></trkpt><trkpt lat="43.10019453533294" lon="1.4010639771481226"><ele>326.0</ele><time>2026-04-02T05:57:49Z</time></trkpt><trkpt lat="43.10016136795741" lon="1.4012631512919498"><ele>326.0</ele><time>2026-04-02T05:57:50Z</time></trkpt><trkpt lat="43.10014546884242" lon="1.401476244994267"><ele>326.0</ele><time>2026-04-02T05:57:51Z</time></trkpt><trkpt lat="43.1001392871685" lon="1.4016769126882216"><ele>327.4</ele><time>2026-04-02T05:57:52Z</time></trkpt><trkpt lat="43.10014815247937" lon="1.4018289038845466"><ele>328.8</ele><time>2026-04-02T05:57:53Z</time></trkpt><trkpt lat="43.10015965269364" lon="1.4019458347893945"><ele>330.2</ele><time>2026-04-02T05:57:54Z</time></trkpt><trkpt lat="43.10024450532241" lon="1.4019987604944681"><ele>331.59999999999997</ele><time>2026-04-02T05:57:55Z</time></trkpt><trkpt lat="43.10032994957594" lon="1.4020115796811021"><ele>333.0</ele><time>2026-04-02T05:57:56Z</time></trkpt><trkpt lat="43.10043343784747" lon="1.4019919809071073"><ele>333.0</ele><time>2026-04-02T05:57:57Z</time></trkpt><trkpt lat="43.10055428232612" lon="1.4019643935387067"><ele>333.0</ele><time>2026-04-02T05:57:58Z</time></trkpt><trkpt lat="43.10070144879152" lon="1.4019710363322921"><ele>333.0</ele><time>2026-04-02T05:57:59Z</time></trkpt><trkpt lat="43.10085450066802" lon="1.4020502333303806"><ele>333.0</ele><time>2026-04-02T05:58:00Z</time></trkpt><trkpt lat="43.10101783988507" lon="1.4021077721489081"><ele>334.25</ele><time>2026-04-02T05:58:01Z</time></trkpt><trkpt lat="43.10115024876787" lon="1.402162918071801"><ele>335.5</ele><time>2026-04-02T05:58:02Z</time></trkpt><trkpt lat="43.10126245099212" lon="1.4021803823386205"><ele>336.75</ele><time>2026-04-02T05:58:03Z</time></trkpt><trkpt lat="43.10137308146784" lon="1.4021559571510869"><ele>338.0</ele><time>2026-04-02T05:58:04Z</time></trkpt><trkpt lat="43.10149054150355" lon="1.402078182038981"><ele>343.33333333333337</ele><time>2026-04-02T05:58:05Z</time></trkpt><trkpt lat="43.10162282071323" lon="1.4019708810187577"><ele>348.6666666666667</ele><time>2026-04-02T05:58:06Z</time></trkpt><trkpt lat="43.101770202860564" lon="1.4018766132725884"><ele>354.0</ele><time>2026-04-02T05:58:07Z</time></trkpt><trkpt lat="43.101919169171126" lon="1.4017990233231192"><ele>354.0</ele><time>2026-04-02T05:58:08Z</time></trkpt><trkpt lat="43.1020645429046" lon="1.4017286491747025"><ele>354.0</ele><time>2026-04-02T05:58:09Z</time></trkpt><trkpt lat="43.10220715589699" lon="1.4016713018227813"><ele>354.0</ele><time>2026-04-02T05:58:10Z</time></trkpt><trkpt lat="43.10234438527714" lon="1.401619090736832"><ele>354.0</ele><time>2026-04-02T05:58:11Z</time></trkpt><trkpt lat="43.102473259122384" lon="1.4015711383623788"><ele>355.5</ele><time>2026-04-02T05:58:12Z</time></trkpt><trkpt lat="43.10260221574848" lon="1.4015546196312452"><ele>357.0</ele><time>2026-04-02T05:58:13Z</time></trkpt><trkpt lat="43.10272419108741" lon="1.401592223817035"><ele>358.5</ele><time>2026-04-02T05:58:14Z</time></trkpt><trkpt lat="43.10281366391898" lon="1.401707618180438"><ele>360.0</ele><time>2026-04-02T05:58:15Z</time></trkpt><trkpt lat="43.102878744008414" lon="1.4018486000567334"><ele>360.0</ele><time>2026-04-02T05:58:16Z</time></trkpt><trkpt lat="43.10294682992208" lon="1.4020164182291963"><ele>360.0</ele><time>2026-04-02T05:58:17Z</time></trkpt><trkpt lat="43.1030229216546" lon="1.4021959026513375"><ele>360.0</ele><time>2026-04-02T05:58:18Z</time></trkpt><trkpt lat="43.10311031368011" lon="1.4023675889437663"><ele>360.0</ele><time>2026-04-02T05:58:19Z</time></trkpt><trkpt lat="43.103222062399745" lon="1.4025010138818241"><ele>362.5</ele><time>2026-04-02T05:58:20Z</time></trkpt><trkpt lat="43.10334771288352" lon="1.4025894426589978"><ele>365.0</ele><time>2026-04-02T05:58:21Z</time></trkpt><trkpt lat="43.103474594749194" lon="1.4026401533091977"><ele>367.5</ele><time>2026-04-02T05:58:22Z</time></trkpt><trkpt lat="43.103611296410755" lon="1.402645044430377"><ele>370.0</ele><time>2026-04-02T05:58:23Z</time></trkpt><trkpt lat="43.103747308398745" lon="1.4026198180449416"><ele>370.0</ele><time>2026-04-02T05:58:24Z</time></trkpt><trkpt lat="43.103859081989796" lon="1.4025706748750848"><ele>370.0</ele><time>2026-04-02T05:58:25Z</time></trkpt><trkpt lat="43.103938032935204" lon="1.4024710021802826"><ele>370.0</ele><time>2026-04-02T05:58:26Z</time></trkpt><trkpt lat="43.10399786209309" lon="1.4023051766260701"><ele>370.0</ele><time>2026-04-02T05:58:27Z</time></trkpt><trkpt lat="43.10405806685377" lon="1.4020973504018444"><ele>375.66666666666663</ele><time>2026-04-02T05:58:28Z</time></trkpt><trkpt lat="43.104120796093184" lon="1.4018833489823788"><ele>381.3333333333333</ele><time>2026-04-02T05:58:29Z</time></trkpt><trkpt lat="43.104198437337416" lon="1.4016919080637678"><ele>387.0</ele><time>2026-04-02T05:58:30Z</time></trkpt><trkpt lat="43.10428141531299" lon="1.4015062993065164"><ele>387.0</ele><time>2026-04-02T05:58:31Z</time></trkpt><trkpt lat="43.10437656218677" lon="1.4013420275759403"><ele>387.0</ele><time>2026-04-02T05:58:32Z</time></trkpt><trkpt lat="43.10450735165407" lon="1.4012435819868045"><ele>387.0</ele><time>2026-04-02T05:58:33Z</time></trkpt><trkpt lat="43.104645072725084" lon="1.4011719675766041"><ele>388.25</ele><time>2026-04-02T05:58:34Z</time></trkpt><trkpt lat="43.10478669103964" lon="1.4011235620025182"><ele>389.5</ele><time>2026-04-02T05:58:35Z</time></trkpt><trkpt lat="43.10492597144519" lon="1.4010668297785782"><ele>390.75</ele><time>2026-04-02T05:58:36Z</time></trkpt><trkpt lat="43.10507965572721" lon="1.4010425921338503"><ele>392.0</ele><time>2026-04-02T05:58:37Z</time></trkpt><trkpt lat="43.10524759325294" lon="1.4010070698075672"><ele>393.25</ele><time>2026-04-02T05:58:38Z</time></trkpt><trkpt lat="43.105403189821736" lon="1.4009655684609275"><ele>394.5</ele><time>2026-04-02T05:58:39Z</time></trkpt><trkpt lat="43.105544378628515" lon="1.4009372285067991"><ele>395.75</ele><time>2026-04-02T05:58:40Z</time></trkpt><trkpt lat="43.1056599823943" lon="1.4009578353119245"><ele>397.0</ele><time>2026-04-02T05:58:41Z</time></trkpt><trkpt lat="43.105766166024544" lon="1.4009996330000665"><ele>397.6666666666667</ele><time>2026-04-02T05:58:42Z</time></trkpt><trkpt lat="43.105879827021326" lon="1.4010890579885589"><ele>398.33333333333337</ele><time>2026-04-02T05:58:43Z</time></trkpt><trkpt lat="43.10598260913833" lon="1.40124091612094"><ele>399.0</ele><time>2026-04-02T05:58:44Z</time></trkpt><trkpt lat="43.1061067136142" lon="1.40140823087176"><ele>401.33333333333337</ele><time>2026-04-02T05:58:45Z</time></trkpt><trkpt lat="43.10626649574814" lon="1.4015888437052666"><ele>403.6666666666667</ele><time>2026-04-02T05:58:46Z</time></trkpt><trkpt lat="43.10641621692521" lon="1.4017989482680464"><ele>406.0</ele><time>2026-04-02T05:58:47Z</time></trkpt><trkpt lat="43.10656290119415" lon="1.4019809238080463"><ele>407.33333333333337</ele><time>2026-04-02T05:58:48Z</time></trkpt><trkpt lat="43.10669035162109" lon="1.4021384196326931"><ele>408.66666666666663</ele><time>2026-04-02T05:58:49Z</time></trkpt><trkpt lat="43.10680589331532" lon="1.402296074845727"><ele>410.0</ele><time>2026-04-02T05:58:50Z</time></trkpt><trkpt lat="43.106872030913664" lon="1.402489595462549"><ele>410.0</ele><time>2026-04-02T05:58:51Z</time></trkpt><trkpt lat="43.106902223131144" lon="1.402709528002633"><ele>410.0</ele><time>2026-04-02T05:58:52Z</time></trkpt><trkpt lat="43.106890470036596" lon="1.4029542773039065"><ele>410.0</ele><time>2026-04-02T05:58:53Z</time></trkpt><trkpt lat="43.106856621452884" lon="1.4032195201041109"><ele>415.5</ele><time>2026-04-02T05:58:54Z</time></trkpt><trkpt lat="43.10682008581954" lon="1.4035118788549166"><ele>421.0</ele><time>2026-04-02T05:58:55Z</time></trkpt><trkpt lat="43.106808002271784" lon="1.4038335340811772"><ele>421.5</ele><time>2026-04-02T05:58:56Z</time></trkpt><trkpt lat="43.106804513821295" lon="1.4041539020769378"><ele>422.0</ele><time>2026-04-02T05:58:57Z</time></trkpt><trkpt lat="43.10681184399433" lon="1.4044507460691114"><ele>421.66666666666663</ele><time>2026-04-02T05:58:58Z</time></trkpt><trkpt lat="43.1068168161665" lon="1.4047230774757435"><ele>421.33333333333337</ele><time>2026-04-02T05:58:59Z</time></trkpt><trkpt lat="43.106818697865144" lon="1.4049716543357214"><ele>421.0</ele><time>2026-04-02T05:59:00Z</time></trkpt><trkpt lat="43.10682506016057" lon="1.4051910056376546"><ele>421.0</ele><time>2026-04-02T05:59:01Z</time></trkpt><trkpt lat="43.10684241494821" lon="1.40537048292406"><ele>421.0</ele><time>2026-04-02T05:59:02Z</time></trkpt><trkpt lat="43.10689433639646" lon="1.4055116418878912"><ele>421.0</ele><time>2026-04-02T05:59:03Z</time></trkpt><trkpt lat="43.106978696991234" lon="1.4056130519761771"><ele>421.0</ele><time>2026-04-02T05:59:04Z</time></trkpt><trkpt lat="43.10707065139952" lon="1.4056665984288153"><ele>420.0</ele><time>2026-04-02T05:59:05Z</time></trkpt><trkpt lat="43.1071505495869" lon="1.405686893218237"><ele>419.0</ele><time>2026-04-02T05:59:06Z</time></trkpt><trkpt lat="43.10722043918068" lon="1.405666859235547"><ele>418.0</ele><time>2026-04-02T05:59:08Z</time></trkpt><trkpt lat="43.10732959326538" lon="1.4056282624304062"><ele>417.0</ele><time>2026-04-02T06:02:24Z</time></trkpt><trkpt lat="43.107366654657085" lon="1.4057471920377638"><ele>416.0</ele><time>2026-04-02T06:02:26Z</time></trkpt><trkpt lat="43.10737647164699" lon="1.4058771431365578"><ele>416.0</ele><time>2026-04-02T06:02:27Z</time></trkpt><trkpt lat="43.107390654033686" lon="1.4060361612212111"><ele>416.0</ele><time>2026-04-02T06:02:28Z</time></trkpt><trkpt lat="43.10741418077027" lon="1.406217341527195"><ele>416.0</ele><time>2026-04-02T06:02:29Z</time></trkpt><trkpt lat="43.107431091871575" lon="1.4063977421352352"><ele>416.0</ele><time>2026-04-02T06:02:30Z</time></trkpt><trkpt lat="43.107451989496425" lon="1.4065982253215776"><ele>416.0</ele><time>2026-04-02T06:02:31Z</time></trkpt><trkpt lat="43.10747202039624" lon="1.4068395572752075"><ele>416.0</ele><time>2026-04-02T06:02:32Z</time></trkpt><trkpt lat="43.10749330560472" lon="1.407057155872988"><ele>416.0</ele><time>2026-04-02T06:02:33Z</time></trkpt><trkpt lat="43.10751438671498" lon="1.4072771262947896"><ele>417.3333333333333</ele><time>2026-04-02T06:02:34Z</time></trkpt><trkpt lat="43.107528882020816" lon="1.407497776576861"><ele>418.66666666666663</ele><time>2026-04-02T06:02:35Z</time></trkpt><trkpt lat="43.10754300284497" lon="1.407702466159743"><ele>420.0</ele><time>2026-04-02T06:02:36Z</time></trkpt><trkpt lat="43.10757318977721" lon="1.4079091708847067"><ele>419.66666666666663</ele><time>2026-04-02T06:02:37Z</time></trkpt><trkpt lat="43.10762414402146" lon="1.4081085004604994"><ele>419.3333333333333</ele><time>2026-04-02T06:02:38Z</time></trkpt><trkpt lat="43.10768161776791" lon="1.408308928651318"><ele>419.0</ele><time>2026-04-02T06:02:39Z</time></trkpt><trkpt lat="43.10772288656323" lon="1.408518866722401"><ele>419.0</ele><time>2026-04-02T06:02:40Z</time></trkpt><trkpt lat="43.10775055850081" lon="1.4087648820354903"><ele>419.0</ele><time>2026-04-02T06:02:41Z</time></trkpt><trkpt lat="43.107740716274336" lon="1.4090043244145416"><ele>419.0</ele><time>2026-04-02T06:02:42Z</time></trkpt><trkpt lat="43.10773437166046" lon="1.4092472969557415"><ele>419.3333333333333</ele><time>2026-04-02T06:02:43Z</time></trkpt><trkpt lat="43.107721566220086" lon="1.409490850627279"><ele>419.66666666666663</ele><time>2026-04-02T06:02:44Z</time></trkpt><trkpt lat="43.10770790342608" lon="1.409728304043179"><ele>420.0</ele><time>2026-04-02T06:02:45Z</time></trkpt><trkpt lat="43.107694414170155" lon="1.4099627413643059"><ele>421.0</ele><time>2026-04-02T06:02:46Z</time></trkpt><trkpt lat="43.10765647493174" lon="1.4101825227774527"><ele>422.0</ele><time>2026-04-02T06:02:47Z</time></trkpt><trkpt lat="43.10759616658961" lon="1.4104312569354498"><ele>423.0</ele><time>2026-04-02T06:02:48Z</time></trkpt><trkpt lat="43.107528821040894" lon="1.4106885693381943"><ele>423.66666666666663</ele><time>2026-04-02T06:02:49Z</time></trkpt><trkpt lat="43.10745751452966" lon="1.4109309629442106"><ele>424.3333333333333</ele><time>2026-04-02T06:02:50Z</time></trkpt><trkpt lat="43.10738553458349" lon="1.4111655351906998"><ele>425.0</ele><time>2026-04-02T06:02:51Z</time></trkpt><trkpt lat="43.10730385730851" lon="1.411378873445447"><ele>425.0</ele><time>2026-04-02T06:02:52Z</time></trkpt><trkpt lat="43.10721196006323" lon="1.4115744665358894"><ele>425.0</ele><time>2026-04-02T06:02:53Z</time></trkpt><trkpt lat="43.1071156112538" lon="1.4117632789218812"><ele>425.0</ele><time>2026-04-02T06:02:54Z</time></trkpt><trkpt lat="43.10701475128359" lon="1.4119526994906428"><ele>425.0</ele><time>2026-04-02T06:02:55Z</time></trkpt><trkpt lat="43.106903450395954" lon="1.4121435531271556"><ele>425.0</ele><time>2026-04-02T06:02:56Z</time></trkpt><trkpt lat="43.10678704459905" lon="1.41233629616693"><ele>425.0</ele><time>2026-04-02T06:02:57Z</time></trkpt><trkpt lat="43.10667151109133" lon="1.4125297090488091"><ele>425.0</ele><time>2026-04-02T06:02:58Z</time></trkpt><trkpt lat="43.1065788891241" lon="1.4127260604975005"><ele>425.0</ele><time>2026-04-02T06:02:59Z</time></trkpt><trkpt lat="43.106483412366956" lon="1.41289861585757"><ele>425.0</ele><time>2026-04-02T06:03:00Z</time></trkpt><trkpt lat="43.10641157589191" lon="1.4130853588609291"><ele>427.66666666666663</ele><time>2026-04-02T06:03:01Z</time></trkpt><trkpt lat="43.10637408180116" lon="1.413291497683518"><ele>430.33333333333337</ele><time>2026-04-02T06:03:02Z</time></trkpt><trkpt lat="43.10636164794182" lon="1.4135146330894022"><ele>433.0</ele><time>2026-04-02T06:03:03Z</time></trkpt><trkpt lat="43.10636428419033" lon="1.4137621549047872"><ele>433.0</ele><time>2026-04-02T06:03:04Z</time></trkpt><trkpt lat="43.10639085772443" lon="1.4140458737396495"><ele>433.0</ele><time>2026-04-02T06:03:05Z</time></trkpt><trkpt lat="43.106390202983505" lon="1.414297795950906"><ele>433.0</ele><time>2026-04-02T06:03:06Z</time></trkpt><trkpt lat="43.10637336602405" lon="1.414555046639563"><ele>431.33333333333337</ele><time>2026-04-02T06:03:07Z</time></trkpt><trkpt lat="43.10637360512365" lon="1.414807776460158"><ele>429.66666666666663</ele><time>2026-04-02T06:03:08Z</time></trkpt><trkpt lat="43.10639555507423" lon="1.4150337973040648"><ele>428.0</ele><time>2026-04-02T06:03:09Z</time></trkpt><trkpt lat="43.106396267883504" lon="1.4152333317069812"><ele>428.0</ele><time>2026-04-02T06:03:10Z</time></trkpt><trkpt lat="43.10636735814271" lon="1.4154192873108737"><ele>428.0</ele><time>2026-04-02T06:03:11Z</time></trkpt><trkpt lat="43.106327704763856" lon="1.4155801186562662"><ele>428.0</ele><time>2026-04-02T06:03:12Z</time></trkpt><trkpt lat="43.10628321416506" lon="1.4157225202189838"><ele>428.0</ele><time>2026-04-02T06:03:13Z</time></trkpt><trkpt lat="43.106249454079006" lon="1.4158617308177985"><ele>429.0</ele><time>2026-04-02T06:03:14Z</time></trkpt><trkpt lat="43.10619820227427" lon="1.416006223673523"><ele>430.0</ele><time>2026-04-02T06:03:15Z</time></trkpt><trkpt lat="43.10614005890681" lon="1.4161660202710018"><ele>431.0</ele><time>2026-04-02T06:03:16Z</time></trkpt><trkpt lat="43.10608103972619" lon="1.4163332589836577"><ele>432.0</ele><time>2026-04-02T06:03:17Z</time></trkpt><trkpt lat="43.10602746950049" lon="1.4164910786244402"><ele>432.75</ele><time>2026-04-02T06:03:18Z</time></trkpt><trkpt lat="43.10597484444954" lon="1.4166364439524801"><ele>433.5</ele><time>2026-04-02T06:03:19Z</time></trkpt><trkpt lat="43.105958375116415" lon="1.4167921528137157"><ele>434.25</ele><time>2026-04-02T06:03:20Z</time></trkpt><trkpt lat="43.10597923150159" lon="1.4169575607148304"><ele>435.0</ele><time>2026-04-02T06:03:21Z</time></trkpt><trkpt lat="43.10602121191452" lon="1.4171237836018307"><ele>434.0</ele><time>2026-04-02T06:03:22Z</time></trkpt><trkpt lat="43.106064369298075" lon="1.4173211364834082"><ele>433.0</ele><time>2026-04-02T06:03:23Z</time></trkpt><trkpt lat="43.10610169658655" lon="1.417574260369622"><ele>432.0</ele><time>2026-04-02T06:03:24Z</time></trkpt><trkpt lat="43.106144359185556" lon="1.417843211013855"><ele>429.0</ele><time>2026-04-02T06:03:25Z</time></trkpt><trkpt lat="43.10616155323412" lon="1.4181371380278376"><ele>426.0</ele><time>2026-04-02T06:03:26Z</time></trkpt><trkpt lat="43.10617685893552" lon="1.418413372452142"><ele>423.0</ele><time>2026-04-02T06:03:27Z</time></trkpt><trkpt lat="43.10618798403698" lon="1.4186627002725152"><ele>424.33333333333337</ele><time>2026-04-02T06:03:28Z</time></trkpt><trkpt lat="43.106208844403824" lon="1.41888737658322"><ele>425.6666666666667</ele><time>2026-04-02T06:03:29Z</time></trkpt><trkpt lat="43.106218190570914" lon="1.4190933973846664"><ele>427.0</ele><time>2026-04-02T06:03:30Z</time></trkpt><trkpt lat="43.10623901247966" lon="1.4192802641535889"><ele>427.0</ele><time>2026-04-02T06:03:31Z</time></trkpt><trkpt lat="43.10627549922306" lon="1.419506059922385"><ele>427.0</ele><time>2026-04-02T06:03:32Z</time></trkpt><trkpt lat="43.10630832213036" lon="1.419745234312862"><ele>427.0</ele><time>2026-04-02T06:03:33Z</time></trkpt><trkpt lat="43.10634134751262" lon="1.4199568964827225"><ele>427.25</ele><time>2026-04-02T06:03:34Z</time></trkpt><trkpt lat="43.106392639616736" lon="1.4201406624590267"><ele>427.5</ele><time>2026-04-02T06:03:35Z</time></trkpt><trkpt lat="43.106476096131914" lon="1.420288500524269"><ele>427.75</ele><time>2026-04-02T06:03:36Z</time></trkpt><trkpt lat="43.10659936554733" lon="1.4204070087687486"><ele>428.0</ele><time>2026-04-02T06:03:37Z</time></trkpt><trkpt lat="43.10674358943431" lon="1.420505321889903"><ele>428.0</ele><time>2026-04-02T06:03:38Z</time></trkpt><trkpt lat="43.10687643619709" lon="1.4206007809293122"><ele>428.0</ele><time>2026-04-02T06:03:39Z</time></trkpt><trkpt lat="43.1069842432948" lon="1.4207077215908586"><ele>428.0</ele><time>2026-04-02T06:03:40Z</time></trkpt><trkpt lat="43.1070558279233" lon="1.420865273701278"><ele>428.0</ele><time>2026-04-02T06:03:41Z</time></trkpt><trkpt lat="43.107127509679316" lon="1.4210446671303096"><ele>428.0</ele><time>2026-04-02T06:03:42Z</time></trkpt><trkpt lat="43.10720441185839" lon="1.421207681080108"><ele>428.0</ele><time>2026-04-02T06:03:43Z</time></trkpt><trkpt lat="43.10725855733293" lon="1.4213727519425081"><ele>428.0</ele><time>2026-04-02T06:03:44Z</time></trkpt><trkpt lat="43.10730601052104" lon="1.4215442860699512"><ele>428.0</ele><time>2026-04-02T06:03:45Z</time></trkpt><trkpt lat="43.10733914280084" lon="1.4217288058379456"><ele>428.5</ele><time>2026-04-02T06:03:46Z</time></trkpt><trkpt lat="43.10734234292521" lon="1.4219239374502466"><ele>429.0</ele><time>2026-04-02T06:03:47Z</time></trkpt><trkpt lat="43.10728124763717" lon="1.4221100772199138"><ele>429.5</ele><time>2026-04-02T06:03:48Z</time></trkpt><trkpt lat="43.107233111474784" lon="1.4223135814585894"><ele>430.0</ele><time>2026-04-02T06:03:49Z</time></trkpt><trkpt lat="43.10719146047011" lon="1.4225105755736973"><ele>428.75</ele><time>2026-04-02T06:03:50Z</time></trkpt><trkpt lat="43.10710447445038" lon="1.422648300074033"><ele>427.5</ele><time>2026-04-02T06:03:51Z</time></trkpt><trkpt lat="43.1070123085936" lon="1.4227534075398214"><ele>426.25</ele><time>2026-04-02T06:03:52Z</time></trkpt><trkpt lat="43.10689855358496" lon="1.4228275702217288"><ele>425.0</ele><time>2026-04-02T06:03:53Z</time></trkpt><trkpt lat="43.10676466736559" lon="1.422902650857884"><ele>425.0</ele><time>2026-04-02T06:03:54Z</time></trkpt><trkpt lat="43.10661514594952" lon="1.4229788315184293"><ele>425.0</ele><time>2026-04-02T06:03:55Z</time></trkpt><trkpt lat="43.10647109233228" lon="1.423086057767646"><ele>425.0</ele><time>2026-04-02T06:03:56Z</time></trkpt><trkpt lat="43.10632811909339" lon="1.4232113883640274"><ele>427.3333333333333</ele><time>2026-04-02T06:03:57Z</time></trkpt><trkpt lat="43.106198707943676" lon="1.4233773786324926"><ele>429.66666666666663</ele><time>2026-04-02T06:03:58Z</time></trkpt><trkpt lat="43.10608996526968" lon="1.4235742825533033"><ele>432.0</ele><time>2026-04-02T06:03:59Z</time></trkpt><trkpt lat="43.105994831690985" lon="1.4238006842364135"><ele>430.0</ele><time>2026-04-02T06:04:00Z</time></trkpt><trkpt lat="43.10590588004805" lon="1.4240236003167557"><ele>428.0</ele><time>2026-04-02T06:04:01Z</time></trkpt><trkpt lat="43.10582123609496" lon="1.4242143535126142"><ele>426.0</ele><time>2026-04-02T06:04:02Z</time></trkpt><trkpt lat="43.10576502662111" lon="1.4243710259846447"><ele>424.75</ele><time>2026-04-02T06:04:03Z</time></trkpt><trkpt lat="43.10573593581029" lon="1.42453496563531"><ele>423.5</ele><time>2026-04-02T06:04:04Z</time></trkpt><trkpt lat="43.10573883493578" lon="1.4247219008212495"><ele>422.25</ele><time>2026-04-02T06:04:05Z</time></trkpt><trkpt lat="43.10578422727988" lon="1.4249045751858345"><ele>421.0</ele><time>2026-04-02T06:04:06Z</time></trkpt><trkpt lat="43.10587000046178" lon="1.4250478453815763"><ele>421.0</ele><time>2026-04-02T06:04:07Z</time></trkpt><trkpt lat="43.105982988539495" lon="1.4251776825761533"><ele>421.0</ele><time>2026-04-02T06:04:08Z</time></trkpt><trkpt lat="43.10611334064917" lon="1.4253237955598037"><ele>421.0</ele><time>2026-04-02T06:04:09Z</time></trkpt><trkpt lat="43.106235950134874" lon="1.4254671959088165"><ele>421.6666666666667</ele><time>2026-04-02T06:04:10Z</time></trkpt><trkpt lat="43.10634363518075" lon="1.4256126712170527"><ele>422.33333333333337</ele><time>2026-04-02T06:04:11Z</time></trkpt><trkpt lat="43.106434710570404" lon="1.4257807493835883"><ele>423.0</ele><time>2026-04-02T06:04:12Z</time></trkpt><trkpt lat="43.106492802722464" lon="1.4259964498964286"><ele>423.0</ele><time>2026-04-02T06:04:13Z</time></trkpt><trkpt lat="43.106548202095546" lon="1.42619621555145"><ele>423.0</ele><time>2026-04-02T06:04:14Z</time></trkpt><trkpt lat="43.106561817851016" lon="1.4263714015525972"><ele>423.0</ele><time>2026-04-02T06:04:15Z</time></trkpt><trkpt lat="43.106554167397796" lon="1.4265376323359542"><ele>423.0</ele><time>2026-04-02T06:04:16Z</time></trkpt><trkpt lat="43.10653626699542" lon="1.4267001748253278"><ele>423.25</ele><time>2026-04-02T06:04:17Z</time></trkpt><trkpt lat="43.106522556639845" lon="1.426867865217021"><ele>423.5</ele><time>2026-04-02T06:04:18Z</time></trkpt><trkpt lat="43.10649117840401" lon="1.42703840507634"><ele>423.75</ele><time>2026-04-02T06:04:19Z</time></trkpt><trkpt lat="43.106456766664685" lon="1.4272166677504603"><ele>424.0</ele><time>2026-04-02T06:04:20Z</time></trkpt><trkpt lat="43.1064215155512" lon="1.427399205282866"><ele>423.0</ele><time>2026-04-02T06:04:21Z</time></trkpt><trkpt lat="43.10638892393905" lon="1.4275877320791655"><ele>422.0</ele><time>2026-04-02T06:04:22Z</time></trkpt><trkpt lat="43.10637259623104" lon="1.4277826628030028"><ele>421.0</ele><time>2026-04-02T06:04:23Z</time></trkpt><trkpt lat="43.10637491312148" lon="1.427976526149501"><ele>420.0</ele><time>2026-04-02T06:04:24Z</time></trkpt><trkpt lat="43.10637979571121" lon="1.4281520224017417"><ele>418.0</ele><time>2026-04-02T06:04:25Z</time></trkpt><trkpt lat="43.10637033131675" lon="1.428316092143058"><ele>416.0</ele><time>2026-04-02T06:04:26Z</time></trkpt><trkpt lat="43.106356694661486" lon="1.4284747175874315"><ele>414.0</ele><time>2026-04-02T06:04:27Z</time></trkpt><trkpt lat="43.10634216781342" lon="1.4286325200619212"><ele>412.0</ele><time>2026-04-02T06:04:28Z</time></trkpt><trkpt lat="43.1063310261648" lon="1.4287932303780688"><ele>408.5</ele><time>2026-04-02T06:04:29Z</time></trkpt><trkpt lat="43.10632986530527" lon="1.4289578447381472"><ele>405.0</ele><time>2026-04-02T06:04:30Z</time></trkpt><trkpt lat="43.10633560451991" lon="1.4291280499567383"><ele>401.5</ele><time>2026-04-02T06:04:31Z</time></trkpt><trkpt lat="43.10634726526052" lon="1.429295481472032"><ele>398.0</ele><time>2026-04-02T06:04:32Z</time></trkpt><trkpt lat="43.10636512361095" lon="1.4294688687092096"><ele>398.0</ele><time>2026-04-02T06:04:33Z</time></trkpt><trkpt lat="43.10639120875814" lon="1.4296378892580097"><ele>398.0</ele><time>2026-04-02T06:04:34Z</time></trkpt><trkpt lat="43.1064170525473" lon="1.4298125999578957"><ele>398.0</ele><time>2026-04-02T06:04:35Z</time></trkpt><trkpt lat="43.10645416666153" lon="1.4299844356236586"><ele>398.0</ele><time>2026-04-02T06:04:36Z</time></trkpt><trkpt lat="43.106510857305146" lon="1.4301520099257554"><ele>393.5</ele><time>2026-04-02T06:04:37Z</time></trkpt><trkpt lat="43.106578938473845" lon="1.4303062407512908"><ele>389.0</ele><time>2026-04-02T06:04:38Z</time></trkpt><trkpt lat="43.10666321223246" lon="1.4304473530383204"><ele>384.5</ele><time>2026-04-02T06:04:39Z</time></trkpt><trkpt lat="43.10675556700116" lon="1.4305795038817986"><ele>380.0</ele><time>2026-04-02T06:04:40Z</time></trkpt><trkpt lat="43.106853969862065" lon="1.4307028535692523"><ele>379.0</ele><time>2026-04-02T06:04:41Z</time></trkpt><trkpt lat="43.10696480126273" lon="1.4308165714564016"><ele>378.0</ele><time>2026-04-02T06:04:42Z</time></trkpt><trkpt lat="43.10707729194708" lon="1.4309175329361306"><ele>377.0</ele><time>2026-04-02T06:04:43Z</time></trkpt><trkpt lat="43.10719254469548" lon="1.4310222344538295"><ele>376.0</ele><time>2026-04-02T06:04:44Z</time></trkpt><trkpt lat="43.10731144408925" lon="1.4311311212655415"><ele>372.66666666666663</ele><time>2026-04-02T06:04:45Z</time></trkpt><trkpt lat="43.10743875855057" lon="1.4312503970614727"><ele>369.3333333333333</ele><time>2026-04-02T06:04:46Z</time></trkpt><trkpt lat="43.10756696338702" lon="1.4313678838067554"><ele>366.0</ele><time>2026-04-02T06:04:47Z</time></trkpt><trkpt lat="43.10769003513552" lon="1.4314946539615632"><ele>364.5</ele><time>2026-04-02T06:04:48Z</time></trkpt><trkpt lat="43.10780762972923" lon="1.4316223998362494"><ele>363.0</ele><time>2026-04-02T06:04:49Z</time></trkpt><trkpt lat="43.107923804333" lon="1.431747748992327"><ele>361.5</ele><time>2026-04-02T06:04:50Z</time></trkpt><trkpt lat="43.10803310064566" lon="1.4318822398596265"><ele>360.0</ele><time>2026-04-02T06:04:51Z</time></trkpt><trkpt lat="43.10813510847118" lon="1.4320252284568518"><ele>357.0</ele><time>2026-04-02T06:04:52Z</time></trkpt><trkpt lat="43.108230440383636" lon="1.4321787695450034"><ele>354.0</ele><time>2026-04-02T06:04:53Z</time></trkpt><trkpt lat="43.1083155944055" lon="1.4323511818085382"><ele>351.0</ele><time>2026-04-02T06:04:54Z</time></trkpt><trkpt lat="43.10839901773386" lon="1.432543116985273"><ele>350.3333333333333</ele><time>2026-04-02T06:04:55Z</time></trkpt><trkpt lat="43.10845196454539" lon="1.4327651075929437"><ele>349.66666666666663</ele><time>2026-04-02T06:04:56Z</time></trkpt><trkpt lat="43.10850170180277" lon="1.432986693694127"><ele>349.0</ele><time>2026-04-02T06:04:57Z</time></trkpt><trkpt lat="43.10856051639255" lon="1.4332088612454066"><ele>346.0</ele><time>2026-04-02T06:04:58Z</time></trkpt><trkpt lat="43.10859712265608" lon="1.4334357433827385"><ele>343.0</ele><time>2026-04-02T06:04:59Z</time></trkpt><trkpt lat="43.10863262371737" lon="1.4336531278359044"><ele>340.0</ele><time>2026-04-02T06:05:00Z</time></trkpt><trkpt lat="43.10865544997454" lon="1.4338759138313308"><ele>337.3333333333333</ele><time>2026-04-02T06:05:01Z</time></trkpt><trkpt lat="43.108667900274945" lon="1.4341037803268823"><ele>334.6666666666667</ele><time>2026-04-02T06:05:02Z</time></trkpt><trkpt lat="43.10867789240807" lon="1.4343325912133644"><ele>332.0</ele><time>2026-04-02T06:05:03Z</time></trkpt><trkpt lat="43.108680027601686" lon="1.4345623241944452"><ele>329.6666666666667</ele><time>2026-04-02T06:05:04Z</time></trkpt><trkpt lat="43.108663564798825" lon="1.4347898404895285"><ele>327.3333333333333</ele><time>2026-04-02T06:05:05Z</time></trkpt><trkpt lat="43.10860709435563" lon="1.4350078602355394"><ele>325.0</ele><time>2026-04-02T06:05:06Z</time></trkpt><trkpt lat="43.10857784513897" lon="1.435229005984657"><ele>325.0</ele><time>2026-04-02T06:05:07Z</time></trkpt><trkpt lat="43.108516567260544" lon="1.4354438755352668"><ele>325.0</ele><time>2026-04-02T06:05:08Z</time></trkpt><trkpt lat="43.10846168474993" lon="1.4356772779782379"><ele>325.0</ele><time>2026-04-02T06:05:09Z</time></trkpt><trkpt lat="43.10839474774398" lon="1.4359193620089095"><ele>321.66666666666663</ele><time>2026-04-02T06:05:10Z</time></trkpt><trkpt lat="43.108336939966094" lon="1.4361790364525164"><ele>318.3333333333333</ele><time>2026-04-02T06:05:11Z</time></trkpt><trkpt lat="43.108254236170566" lon="1.4364356296556708"><ele>315.0</ele><time>2026-04-02T06:05:12Z</time></trkpt><trkpt lat="43.108167337498884" lon="1.4366999440400996"><ele>313.0</ele><time>2026-04-02T06:05:13Z</time></trkpt><trkpt lat="43.10807810271503" lon="1.4369732782742892"><ele>311.0</ele><time>2026-04-02T06:05:14Z</time></trkpt><trkpt lat="43.10798693269306" lon="1.4372486704772718"><ele>309.0</ele><time>2026-04-02T06:05:15Z</time></trkpt><trkpt lat="43.10789949285826" lon="1.4375244412670474"><ele>307.3333333333333</ele><time>2026-04-02T06:05:16Z</time></trkpt><trkpt lat="43.10781069025517" lon="1.4377984368533083"><ele>305.66666666666663</ele><time>2026-04-02T06:05:17Z</time></trkpt><trkpt lat="43.10771979144219" lon="1.4380763204696427"><ele>304.0</ele><time>2026-04-02T06:05:18Z</time></trkpt><trkpt lat="43.107630736095366" lon="1.4383425201257412"><ele>303.3333333333333</ele><time>2026-04-02T06:05:19Z</time></trkpt><trkpt lat="43.10754514008338" lon="1.4386035926967171"><ele>302.6666666666667</ele><time>2026-04-02T06:05:20Z</time></trkpt><trkpt lat="43.10746175031183" lon="1.4388537984253769"><ele>302.0</ele><time>2026-04-02T06:05:21Z</time></trkpt><trkpt lat="43.10738257078244" lon="1.4390948002143096"><ele>302.0</ele><time>2026-04-02T06:05:22Z</time></trkpt><trkpt lat="43.10730452332525" lon="1.4393273807690368"><ele>302.0</ele><time>2026-04-02T06:05:23Z</time></trkpt><trkpt lat="43.10723081665809" lon="1.439544982667542"><ele>302.0</ele><time>2026-04-02T06:05:24Z</time></trkpt><trkpt lat="43.10716975980473" lon="1.4397281077752218"><ele>300.2</ele><time>2026-04-02T06:05:25Z</time></trkpt><trkpt lat="43.107119435458785" lon="1.439876568355181"><ele>298.4</ele><time>2026-04-02T06:05:26Z</time></trkpt><trkpt lat="43.10707795685495" lon="1.43998285577383"><ele>296.6</ele><time>2026-04-02T06:05:27Z</time></trkpt><trkpt lat="43.10702709724342" lon="1.4400958779558897"><ele>294.8</ele><time>2026-04-02T06:05:29Z</time></trkpt><trkpt lat="43.1069222713139" lon="1.4401525557149395"><ele>293.0</ele><time>2026-04-02T06:05:33Z</time></trkpt><trkpt lat="43.10685029982199" lon="1.4402041924505833"><ele>293.0</ele><time>2026-04-02T06:05:34Z</time></trkpt><trkpt lat="43.1067134802706" lon="1.440142308663378"><ele>293.0</ele><time>2026-04-02T06:05:35Z</time></trkpt><trkpt lat="43.106578708220994" lon="1.4401679046249256"><ele>293.0</ele><time>2026-04-02T06:05:36Z</time></trkpt><trkpt lat="43.10639957316208" lon="1.4402147178708335"><ele>295.0</ele><time>2026-04-02T06:05:37Z</time></trkpt><trkpt lat="43.10620693268349" lon="1.4402762157692206"><ele>297.0</ele><time>2026-04-02T06:05:38Z</time></trkpt><trkpt lat="43.10600980061864" lon="1.440325099012201"><ele>299.0</ele><time>2026-04-02T06:05:39Z</time></trkpt><trkpt lat="43.10581608893985" lon="1.4403630223779347"><ele>299.33333333333337</ele><time>2026-04-02T06:05:40Z</time></trkpt><trkpt lat="43.105623352616504" lon="1.4404029264326372"><ele>299.6666666666667</ele><time>2026-04-02T06:05:41Z</time></trkpt><trkpt lat="43.105432160256896" lon="1.4404610128657125"><ele>300.0</ele><time>2026-04-02T06:05:42Z</time></trkpt><trkpt lat="43.1052416612955" lon="1.4405284233508613"><ele>296.6666666666667</ele><time>2026-04-02T06:05:43Z</time></trkpt><trkpt lat="43.10504500129165" lon="1.440600200357171"><ele>293.33333333333337</ele><time>2026-04-02T06:05:44Z</time></trkpt><trkpt lat="43.104843378335985" lon="1.4406873246507865"><ele>290.0</ele><time>2026-04-02T06:05:45Z</time></trkpt><trkpt lat="43.104661696165856" lon="1.4407784084302668"><ele>289.6666666666667</ele><time>2026-04-02T06:05:46Z</time></trkpt><trkpt lat="43.104492728907786" lon="1.4408647728282162"><ele>289.3333333333333</ele><time>2026-04-02T06:05:47Z</time></trkpt><trkpt lat="43.10433472532235" lon="1.440950780480977"><ele>289.0</ele><time>2026-04-02T06:05:48Z</time></trkpt><trkpt lat="43.1041865979916" lon="1.4410349679623775"><ele>291.3333333333333</ele><time>2026-04-02T06:05:49Z</time></trkpt><trkpt lat="43.104038773611336" lon="1.4411149496785585"><ele>293.6666666666667</ele><time>2026-04-02T06:05:50Z</time></trkpt><trkpt lat="43.10389417506971" lon="1.441193225264543"><ele>296.0</ele><time>2026-04-02T06:05:51Z</time></trkpt><trkpt lat="43.103757821705244" lon="1.4412677209479459"><ele>294.75</ele><time>2026-04-02T06:05:52Z</time></trkpt><trkpt lat="43.10362835818095" lon="1.4413430635553974"><ele>293.5</ele><time>2026-04-02T06:05:53Z</time></trkpt><trkpt lat="43.10351072471939" lon="1.4414144567522245"><ele>292.25</ele><time>2026-04-02T06:05:54Z</time></trkpt><trkpt lat="43.103395314945544" lon="1.4414838676187658"><ele>291.0</ele><time>2026-04-02T06:05:55Z</time></trkpt><trkpt lat="43.10328372949166" lon="1.4415349539049243"><ele>292.2</ele><time>2026-04-02T06:05:56Z</time></trkpt><trkpt lat="43.10318547368248" lon="1.4415889370003354"><ele>293.40000000000003</ele><time>2026-04-02T06:05:57Z</time></trkpt><trkpt lat="43.103118302942335" lon="1.4416348067462288"><ele>294.6</ele><time>2026-04-02T06:05:58Z</time></trkpt><trkpt lat="43.10305631723154" lon="1.4416684540929057"><ele>295.8</ele><time>2026-04-02T06:05:59Z</time></trkpt><trkpt lat="43.10295570767298" lon="1.4416975270262888"><ele>297.0</ele><time>2026-04-02T06:06:01Z</time></trkpt><trkpt lat="43.10284227166177" lon="1.4417033058155828"><ele>297.0</ele><time>2026-04-02T06:06:05Z</time></trkpt><trkpt lat="43.102693216453524" lon="1.4418332436155135"><ele>297.0</ele><time>2026-04-02T06:06:07Z</time></trkpt><trkpt lat="43.102616363183245" lon="1.441903147721276"><ele>297.0</ele><time>2026-04-02T06:06:08Z</time></trkpt><trkpt lat="43.10252616475459" lon="1.4419838645160312"><ele>297.0</ele><time>2026-04-02T06:06:09Z</time></trkpt><trkpt lat="43.10244211877651" lon="1.4420550162266303"><ele>296.0</ele><time>2026-04-02T06:06:10Z</time></trkpt><trkpt lat="43.102360874561754" lon="1.442121039262902"><ele>295.0</ele><time>2026-04-02T06:06:11Z</time></trkpt><trkpt lat="43.10228461985179" lon="1.442180767865074"><ele>294.0</ele><time>2026-04-02T06:06:12Z</time></trkpt><trkpt lat="43.10222580816349" lon="1.4422598820451824"><ele>293.0</ele><time>2026-04-02T06:06:13Z</time></trkpt><trkpt lat="43.10219630802587" lon="1.442361207513946"><ele>292.0</ele><time>2026-04-02T06:06:14Z</time></trkpt><trkpt lat="43.10217794233461" lon="1.4424609179228074"><ele>291.0</ele><time>2026-04-02T06:06:15Z</time></trkpt><trkpt lat="43.10216565605395" lon="1.442558578961811"><ele>291.0</ele><time>2026-04-02T06:06:16Z</time></trkpt><trkpt lat="43.10215558130238" lon="1.4426596739468174"><ele>291.0</ele><time>2026-04-02T06:06:17Z</time></trkpt><trkpt lat="43.10214648146058" lon="1.4427653284874316"><ele>291.0</ele><time>2026-04-02T06:06:18Z</time></trkpt><trkpt lat="43.10214348574769" lon="1.4428604508005949"><ele>291.0</ele><time>2026-04-02T06:06:19Z</time></trkpt><trkpt lat="43.102108314540835" lon="1.4429891217563213"><ele>291.0</ele><time>2026-04-02T06:06:21Z</time></trkpt><trkpt lat="43.10209924609603" lon="1.4430910916628836"><ele>291.0</ele><time>2026-04-02T06:06:23Z</time></trkpt><trkpt lat="43.10208480946836" lon="1.4431826527123892"><ele>291.1666666666667</ele><time>2026-04-02T06:06:25Z</time></trkpt><trkpt lat="43.1020636468621" lon="1.443319858815134"><ele>291.3333333333333</ele><time>2026-04-02T06:06:28Z</time></trkpt><trkpt lat="43.10205031650357" lon="1.4434407113115189"><ele>291.5</ele><time>2026-04-02T06:06:30Z</time></trkpt><trkpt lat="43.10200943278883" lon="1.4435479134096918"><ele>291.66666666666663</ele><time>2026-04-02T06:06:32Z</time></trkpt><trkpt lat="43.10197557489608" lon="1.4436229095063131"><ele>291.8333333333333</ele><time>2026-04-02T06:06:35Z</time></trkpt><trkpt lat="43.10203184308081" lon="1.4437099218534444"><ele>292.0</ele><time>2026-04-02T06:06:37Z</time></trkpt><trkpt lat="43.102096433500286" lon="1.4437482889376922"><ele>292.0</ele><time>2026-04-02T06:06:38Z</time></trkpt><trkpt lat="43.102190202405076" lon="1.4437611941640127"><ele>292.0</ele><time>2026-04-02T06:06:39Z</time></trkpt><trkpt lat="43.10227497481017" lon="1.4437980038474483"><ele>292.0</ele><time>2026-04-02T06:06:40Z</time></trkpt><trkpt lat="43.102362025367334" lon="1.4438375735927858"><ele>292.0</ele><time>2026-04-02T06:06:41Z</time></trkpt><trkpt lat="43.10247299629058" lon="1.4438924051881863"><ele>292.0</ele><time>2026-04-02T06:06:42Z</time></trkpt><trkpt lat="43.10255973737842" lon="1.4439444045281442"><ele>293.6</ele><time>2026-04-02T06:06:43Z</time></trkpt><trkpt lat="43.10265485882506" lon="1.443997039329632"><ele>295.2</ele><time>2026-04-02T06:06:44Z</time></trkpt><trkpt lat="43.10274689843573" lon="1.4440596211355983"><ele>296.8</ele><time>2026-04-02T06:06:45Z</time></trkpt><trkpt lat="43.102845533428045" lon="1.4441335139238953"><ele>298.4</ele><time>2026-04-02T06:06:46Z</time></trkpt><trkpt lat="43.10294667100277" lon="1.4442187977785543"><ele>300.0</ele><time>2026-04-02T06:06:47Z</time></trkpt><trkpt lat="43.10305051638889" lon="1.4443111558806425"><ele>300.0</ele><time>2026-04-02T06:06:48Z</time></trkpt><trkpt lat="43.10316432406663" lon="1.4444327987378005"><ele>300.0</ele><time>2026-04-02T06:06:49Z</time></trkpt><trkpt lat="43.10330836373413" lon="1.44456575360224"><ele>300.0</ele><time>2026-04-02T06:06:50Z</time></trkpt><trkpt lat="43.1034637889223" lon="1.4447092175938503"><ele>304.6666666666667</ele><time>2026-04-02T06:06:51Z</time></trkpt><trkpt lat="43.103624635556855" lon="1.4448576862282478"><ele>309.33333333333337</ele><time>2026-04-02T06:06:52Z</time></trkpt><trkpt lat="43.10378639933403" lon="1.445004595915047"><ele>314.0</ele><time>2026-04-02T06:06:53Z</time></trkpt><trkpt lat="43.10394985078915" lon="1.4451411331822435"><ele>315.6666666666667</ele><time>2026-04-02T06:06:54Z</time></trkpt><trkpt lat="43.10409882048686" lon="1.4452839581785024"><ele>317.3333333333333</ele><time>2026-04-02T06:06:55Z</time></trkpt><trkpt lat="43.1042457529071" lon="1.4454144082944904"><ele>319.0</ele><time>2026-04-02T06:06:56Z</time></trkpt><trkpt lat="43.10438458034717" lon="1.4455559290701034"><ele>319.0</ele><time>2026-04-02T06:06:57Z</time></trkpt><trkpt lat="43.10452324806767" lon="1.4457088810607481"><ele>319.0</ele><time>2026-04-02T06:06:58Z</time></trkpt><trkpt lat="43.10465196328039" lon="1.4458763850632417"><ele>319.0</ele><time>2026-04-02T06:06:59Z</time></trkpt><trkpt lat="43.104770188200405" lon="1.446057920998217"><ele>319.0</ele><time>2026-04-02T06:07:00Z</time></trkpt><trkpt lat="43.10486635340521" lon="1.446225943862742"><ele>319.0</ele><time>2026-04-02T06:07:01Z</time></trkpt><trkpt lat="43.10494490811433" lon="1.4463807571774838"><ele>319.0</ele><time>2026-04-02T06:07:02Z</time></trkpt><trkpt lat="43.105001993658796" lon="1.446542881733633"><ele>319.0</ele><time>2026-04-02T06:07:03Z</time></trkpt><trkpt lat="43.10500453606032" lon="1.4467321492102523"><ele>319.75</ele><time>2026-04-02T06:07:04Z</time></trkpt><trkpt lat="43.104979956453946" lon="1.4469169670928457"><ele>320.5</ele><time>2026-04-02T06:07:05Z</time></trkpt><trkpt lat="43.10496690713647" lon="1.4470966581292029"><ele>321.25</ele><time>2026-04-02T06:07:06Z</time></trkpt><trkpt lat="43.10495961814183" lon="1.4472484254384461"><ele>322.0</ele><time>2026-04-02T06:07:07Z</time></trkpt><trkpt lat="43.105016803161206" lon="1.4473649512228834"><ele>322.0</ele><time>2026-04-02T06:07:08Z</time></trkpt><trkpt lat="43.105115125087785" lon="1.4474484835947912"><ele>322.0</ele><time>2026-04-02T06:07:09Z</time></trkpt><trkpt lat="43.10522496326253" lon="1.4474624997983971"><ele>322.0</ele><time>2026-04-02T06:07:10Z</time></trkpt><trkpt lat="43.10536095256049" lon="1.4474485949401634"><ele>322.0</ele><time>2026-04-02T06:07:11Z</time></trkpt><trkpt lat="43.10548646525195" lon="1.4474636486549568"><ele>322.0</ele><time>2026-04-02T06:07:12Z</time></trkpt><trkpt lat="43.10557206101838" lon="1.4475663805123227"><ele>322.0</ele><time>2026-04-02T06:07:13Z</time></trkpt><trkpt lat="43.105610600863116" lon="1.4477236965279707"><ele>322.0</ele><time>2026-04-02T06:07:14Z</time></trkpt><trkpt lat="43.105606726875806" lon="1.4479032698541145"><ele>322.0</ele><time>2026-04-02T06:07:15Z</time></trkpt><trkpt lat="43.105624917068525" lon="1.4480491596247709"><ele>322.75</ele><time>2026-04-02T06:07:16Z</time></trkpt><trkpt lat="43.10571835314181" lon="1.448136494473497"><ele>323.5</ele><time>2026-04-02T06:07:17Z</time></trkpt><trkpt lat="43.10586437802234" lon="1.4481700023590796"><ele>324.25</ele><time>2026-04-02T06:07:18Z</time></trkpt><trkpt lat="43.10603510225974" lon="1.4481799848130685"><ele>325.0</ele><time>2026-04-02T06:07:19Z</time></trkpt><trkpt lat="43.106199405008205" lon="1.4482011507615886"><ele>325.0</ele><time>2026-04-02T06:07:20Z</time></trkpt><trkpt lat="43.106356196018446" lon="1.4482780676122864"><ele>325.0</ele><time>2026-04-02T06:07:21Z</time></trkpt><trkpt lat="43.106479318003004" lon="1.4484406311131486"><ele>325.0</ele><time>2026-04-02T06:07:22Z</time></trkpt><trkpt lat="43.10659332837096" lon="1.4486357477349412"><ele>327.0</ele><time>2026-04-02T06:07:23Z</time></trkpt><trkpt lat="43.10668875313743" lon="1.4488672581179656"><ele>329.0</ele><time>2026-04-02T06:07:24Z</time></trkpt><trkpt lat="43.106804790985684" lon="1.4490905585474794"><ele>331.0</ele><time>2026-04-02T06:07:25Z</time></trkpt><trkpt lat="43.10691223815946" lon="1.4492728423875756"><ele>331.0</ele><time>2026-04-02T06:07:26Z</time></trkpt><trkpt lat="43.10703720986529" lon="1.4494577833733377"><ele>331.0</ele><time>2026-04-02T06:07:27Z</time></trkpt><trkpt lat="43.107121343485254" lon="1.4496979395710614"><ele>331.0</ele><time>2026-04-02T06:07:28Z</time></trkpt><trkpt lat="43.107171127057974" lon="1.4499604185868815"><ele>333.0</ele><time>2026-04-02T06:07:29Z</time></trkpt><trkpt lat="43.1071998103783" lon="1.4501932244907156"><ele>335.0</ele><time>2026-04-02T06:07:30Z</time></trkpt><trkpt lat="43.10719252098366" lon="1.4503890497243888"><ele>337.0</ele><time>2026-04-02T06:07:31Z</time></trkpt><trkpt lat="43.107149370232655" lon="1.450564781655419"><ele>338.3333333333333</ele><time>2026-04-02T06:07:32Z</time></trkpt><trkpt lat="43.10703962285905" lon="1.4507435652445835"><ele>339.6666666666667</ele><time>2026-04-02T06:07:33Z</time></trkpt><trkpt lat="43.106952143286726" lon="1.4509771908315008"><ele>341.0</ele><time>2026-04-02T06:07:34Z</time></trkpt><trkpt lat="43.10683545863306" lon="1.4512113502708968"><ele>339.33333333333337</ele><time>2026-04-02T06:07:35Z</time></trkpt><trkpt lat="43.106727283508675" lon="1.4514473900574445"><ele>337.6666666666667</ele><time>2026-04-02T06:07:36Z</time></trkpt><trkpt lat="43.10663108665976" lon="1.451653986227163"><ele>336.0</ele><time>2026-04-02T06:07:37Z</time></trkpt><trkpt lat="43.10655609995079" lon="1.451852034388177"><ele>336.3333333333333</ele><time>2026-04-02T06:07:38Z</time></trkpt><trkpt lat="43.10652431546567" lon="1.4520555815794625"><ele>336.66666666666663</ele><time>2026-04-02T06:07:39Z</time></trkpt><trkpt lat="43.106542417772275" lon="1.4522660174725082"><ele>337.0</ele><time>2026-04-02T06:07:40Z</time></trkpt><trkpt lat="43.1065963027303" lon="1.452493702835587"><ele>337.0</ele><time>2026-04-02T06:07:41Z</time></trkpt><trkpt lat="43.10667191186575" lon="1.452718109154487"><ele>337.0</ele><time>2026-04-02T06:07:42Z</time></trkpt><trkpt lat="43.10672348112061" lon="1.452912560724489"><ele>337.0</ele><time>2026-04-02T06:07:43Z</time></trkpt><trkpt lat="43.10668544891453" lon="1.4530576331825342"><ele>337.0</ele><time>2026-04-02T06:07:44Z</time></trkpt><trkpt lat="43.10660722827476" lon="1.453187338223307"><ele>342.3333333333333</ele><time>2026-04-02T06:07:45Z</time></trkpt><trkpt lat="43.1065105051822" lon="1.4533530777903023"><ele>347.6666666666667</ele><time>2026-04-02T06:07:46Z</time></trkpt><trkpt lat="43.10641010085397" lon="1.4535261834383146"><ele>353.0</ele><time>2026-04-02T06:07:47Z</time></trkpt><trkpt lat="43.10630582983109" lon="1.4537199184938288"><ele>353.33333333333337</ele><time>2026-04-02T06:07:48Z</time></trkpt><trkpt lat="43.10620868266825" lon="1.453904800379273"><ele>353.6666666666667</ele><time>2026-04-02T06:07:49Z</time></trkpt><trkpt lat="43.10614413766512" lon="1.4540933105269813"><ele>354.0</ele><time>2026-04-02T06:07:50Z</time></trkpt><trkpt lat="43.10612718098132" lon="1.4543011886044839"><ele>354.0</ele><time>2026-04-02T06:07:51Z</time></trkpt><trkpt lat="43.10617783050586" lon="1.4544996972611623"><ele>354.0</ele><time>2026-04-02T06:07:52Z</time></trkpt><trkpt lat="43.106264033738356" lon="1.4546963911909125"><ele>354.0</ele><time>2026-04-02T06:07:53Z</time></trkpt><trkpt lat="43.1062984653849" lon="1.4549154194828147"><ele>355.0</ele><time>2026-04-02T06:07:54Z</time></trkpt><trkpt lat="43.10626636689207" lon="1.455126612275757"><ele>356.0</ele><time>2026-04-02T06:07:55Z</time></trkpt><trkpt lat="43.10622633280221" lon="1.4553527085922018"><ele>357.0</ele><time>2026-04-02T06:07:56Z</time></trkpt><trkpt lat="43.10621172094154" lon="1.455540299015086"><ele>357.5</ele><time>2026-04-02T06:07:57Z</time></trkpt><trkpt lat="43.10623714240792" lon="1.4557076854041873"><ele>358.0</ele><time>2026-04-02T06:07:58Z</time></trkpt><trkpt lat="43.1063226100691" lon="1.4558453544722127"><ele>358.5</ele><time>2026-04-02T06:07:59Z</time></trkpt><trkpt lat="43.10645295063153" lon="1.4559222195512518"><ele>359.0</ele><time>2026-04-02T06:08:00Z</time></trkpt><trkpt lat="43.10659331617748" lon="1.4559319293945676"><ele>359.0</ele><time>2026-04-02T06:08:01Z</time></trkpt><trkpt lat="43.10673812758025" lon="1.4558906594322298"><ele>359.0</ele><time>2026-04-02T06:08:02Z</time></trkpt><trkpt lat="43.106887369869426" lon="1.4558030600592393"><ele>359.0</ele><time>2026-04-02T06:08:03Z</time></trkpt><trkpt lat="43.10704280134806" lon="1.4556904664692916"><ele>359.0</ele><time>2026-04-02T06:08:04Z</time></trkpt><trkpt lat="43.10719772082448" lon="1.4555701719729228"><ele>359.0</ele><time>2026-04-02T06:08:05Z</time></trkpt><trkpt lat="43.10734332479973" lon="1.4554623182639765"><ele>359.0</ele><time>2026-04-02T06:08:06Z</time></trkpt><trkpt lat="43.107495716375546" lon="1.455369097479771"><ele>357.33333333333337</ele><time>2026-04-02T06:08:07Z</time></trkpt><trkpt lat="43.107655531572604" lon="1.4553146283744072"><ele>355.6666666666667</ele><time>2026-04-02T06:08:08Z</time></trkpt><trkpt lat="43.10782193435331" lon="1.4552773345720966"><ele>354.0</ele><time>2026-04-02T06:08:09Z</time></trkpt><trkpt lat="43.107964380887005" lon="1.455218477581308"><ele>354.0</ele><time>2026-04-02T06:08:10Z</time></trkpt><trkpt lat="43.10807979345474" lon="1.4551231676905825"><ele>354.0</ele><time>2026-04-02T06:08:11Z</time></trkpt><trkpt lat="43.10817834720889" lon="1.4550399304330852"><ele>354.0</ele><time>2026-04-02T06:08:12Z</time></trkpt><trkpt lat="43.10826767903021" lon="1.455046578938185"><ele>354.0</ele><time>2026-04-02T06:08:13Z</time></trkpt><trkpt lat="43.10834056563349" lon="1.4551264901664833"><ele>354.0</ele><time>2026-04-02T06:08:14Z</time></trkpt><trkpt lat="43.10837441085236" lon="1.455268510803253"><ele>355.75</ele><time>2026-04-02T06:08:15Z</time></trkpt><trkpt lat="43.10842429438784" lon="1.4554099484109764"><ele>357.5</ele><time>2026-04-02T06:08:16Z</time></trkpt><trkpt lat="43.10847251596763" lon="1.4555698473436471"><ele>359.25</ele><time>2026-04-02T06:08:17Z</time></trkpt><trkpt lat="43.10849890863857" lon="1.4557842634411569"><ele>361.0</ele><time>2026-04-02T06:08:18Z</time></trkpt><trkpt lat="43.1085206858312" lon="1.4559917399129223"><ele>364.3333333333333</ele><time>2026-04-02T06:08:19Z</time></trkpt><trkpt lat="43.10854789937878" lon="1.4561865990829572"><ele>367.6666666666667</ele><time>2026-04-02T06:08:20Z</time></trkpt><trkpt lat="43.10861461831" lon="1.4563675405077436"><ele>371.0</ele><time>2026-04-02T06:08:21Z</time></trkpt><trkpt lat="43.10872034822051" lon="1.4565293600303508"><ele>371.5</ele><time>2026-04-02T06:08:22Z</time></trkpt><trkpt lat="43.10884857665151" lon="1.456658369621666"><ele>372.0</ele><time>2026-04-02T06:08:23Z</time></trkpt><trkpt lat="43.1089832558797" lon="1.4567381520946023"><ele>372.5</ele><time>2026-04-02T06:08:24Z</time></trkpt><trkpt lat="43.10909314816626" lon="1.4568234534301798"><ele>373.0</ele><time>2026-04-02T06:08:25Z</time></trkpt><trkpt lat="43.10916591885558" lon="1.4569509851437463"><ele>373.0</ele><time>2026-04-02T06:08:26Z</time></trkpt><trkpt lat="43.109173752480295" lon="1.4571177192002107"><ele>373.0</ele><time>2026-04-02T06:08:27Z</time></trkpt><trkpt lat="43.10916472515384" lon="1.4572802427476423"><ele>373.0</ele><time>2026-04-02T06:08:28Z</time></trkpt><trkpt lat="43.109134552314416" lon="1.4574826734460777"><ele>373.0</ele><time>2026-04-02T06:08:29Z</time></trkpt><trkpt lat="43.10910642954674" lon="1.45771412648133"><ele>380.66666666666663</ele><time>2026-04-02T06:08:30Z</time></trkpt><trkpt lat="43.10904211782384" lon="1.4579394481902002"><ele>388.3333333333333</ele><time>2026-04-02T06:08:31Z</time></trkpt><trkpt lat="43.108965517148526" lon="1.4581452988933081"><ele>396.0</ele><time>2026-04-02T06:08:32Z</time></trkpt><trkpt lat="43.10888248326903" lon="1.4583374777474396"><ele>397.33333333333337</ele><time>2026-04-02T06:08:33Z</time></trkpt><trkpt lat="43.10880085387589" lon="1.458531177090124"><ele>398.6666666666667</ele><time>2026-04-02T06:08:34Z</time></trkpt><trkpt lat="43.108744585252666" lon="1.458728334904179"><ele>400.0</ele><time>2026-04-02T06:08:35Z</time></trkpt><trkpt lat="43.108723662049506" lon="1.4589561473139552"><ele>400.33333333333337</ele><time>2026-04-02T06:08:36Z</time></trkpt><trkpt lat="43.10872057963484" lon="1.4592175486212544"><ele>400.66666666666663</ele><time>2026-04-02T06:08:37Z</time></trkpt><trkpt lat="43.10872233703328" lon="1.4594800076721475"><ele>401.0</ele><time>2026-04-02T06:08:38Z</time></trkpt><trkpt lat="43.108729565251366" lon="1.4597703238273383"><ele>401.66666666666663</ele><time>2026-04-02T06:08:39Z</time></trkpt><trkpt lat="43.10875414349419" lon="1.4600459479557681"><ele>402.33333333333337</ele><time>2026-04-02T06:08:40Z</time></trkpt><trkpt lat="43.10879017350079" lon="1.4603076936548072"><ele>403.0</ele><time>2026-04-02T06:08:41Z</time></trkpt><trkpt lat="43.10883660949514" lon="1.4605799258575913"><ele>403.0</ele><time>2026-04-02T06:08:42Z</time></trkpt><trkpt lat="43.108890690697564" lon="1.4608422951260283"><ele>403.0</ele><time>2026-04-02T06:08:43Z</time></trkpt><trkpt lat="43.10896228808412" lon="1.4611017943972133"><ele>403.0</ele><time>2026-04-02T06:08:44Z</time></trkpt><trkpt lat="43.10905435039022" lon="1.4613514240122716"><ele>401.0</ele><time>2026-04-02T06:08:45Z</time></trkpt><trkpt lat="43.109154018864544" lon="1.4615888165468747"><ele>399.0</ele><time>2026-04-02T06:08:46Z</time></trkpt><trkpt lat="43.10923944912546" lon="1.4618348466403295"><ele>397.0</ele><time>2026-04-02T06:08:47Z</time></trkpt><trkpt lat="43.10926270240254" lon="1.4621023075721788"><ele>398.6666666666667</ele><time>2026-04-02T06:08:48Z</time></trkpt><trkpt lat="43.109302761020565" lon="1.462372547471649"><ele>400.33333333333337</ele><time>2026-04-02T06:08:49Z</time></trkpt><trkpt lat="43.10934630152896" lon="1.4626374893919913"><ele>402.0</ele><time>2026-04-02T06:08:50Z</time></trkpt><trkpt lat="43.10938373497267" lon="1.4628886979028863"><ele>404.0</ele><time>2026-04-02T06:08:51Z</time></trkpt><trkpt lat="43.10945016052335" lon="1.463109909422037"><ele>406.0</ele><time>2026-04-02T06:08:52Z</time></trkpt><trkpt lat="43.10954270641484" lon="1.4633162610710326"><ele>408.0</ele><time>2026-04-02T06:08:53Z</time></trkpt><trkpt lat="43.10965871204985" lon="1.463496043858503"><ele>408.0</ele><time>2026-04-02T06:08:54Z</time></trkpt><trkpt lat="43.10979894648815" lon="1.463632703924785"><ele>408.0</ele><time>2026-04-02T06:08:55Z</time></trkpt><trkpt lat="43.1099565067682" lon="1.463714515715445"><ele>408.0</ele><time>2026-04-02T06:08:56Z</time></trkpt><trkpt lat="43.110115065701464" lon="1.4637356110074724"><ele>408.5</ele><time>2026-04-02T06:08:57Z</time></trkpt><trkpt lat="43.11025612749284" lon="1.4637052072550158"><ele>409.0</ele><time>2026-04-02T06:08:58Z</time></trkpt><trkpt lat="43.11038065433329" lon="1.4636759749854338"><ele>409.5</ele><time>2026-04-02T06:08:59Z</time></trkpt><trkpt lat="43.110469996584115" lon="1.4637027758459693"><ele>410.0</ele><time>2026-04-02T06:09:00Z</time></trkpt><trkpt lat="43.11051354033383" lon="1.4638542107572665"><ele>410.0</ele><time>2026-04-02T06:09:02Z</time></trkpt><trkpt lat="43.11048656417507" lon="1.4639516224973521"><ele>410.0</ele><time>2026-04-02T06:09:03Z</time></trkpt><trkpt lat="43.11041604667053" lon="1.4640490858612532"><ele>410.0</ele><time>2026-04-02T06:09:04Z</time></trkpt><trkpt lat="43.11035723893459" lon="1.4641970923568814"><ele>410.0</ele><time>2026-04-02T06:09:05Z</time></trkpt><trkpt lat="43.110281499797054" lon="1.464366003675761"><ele>410.0</ele><time>2026-04-02T06:09:06Z</time></trkpt><trkpt lat="43.11022469288973" lon="1.4645615145309927"><ele>412.66666666666663</ele><time>2026-04-02T06:09:07Z</time></trkpt><trkpt lat="43.110201359694315" lon="1.4647613372169035"><ele>415.33333333333337</ele><time>2026-04-02T06:09:08Z</time></trkpt><trkpt lat="43.11021585520242" lon="1.464969209257834"><ele>418.0</ele><time>2026-04-02T06:09:09Z</time></trkpt><trkpt lat="43.110267961455214" lon="1.4651661984527404"><ele>418.0</ele><time>2026-04-02T06:09:10Z</time></trkpt><trkpt lat="43.110344613718695" lon="1.465337980407057"><ele>418.0</ele><time>2026-04-02T06:09:11Z</time></trkpt><trkpt lat="43.11039323084521" lon="1.4654900034374783"><ele>418.0</ele><time>2026-04-02T06:09:12Z</time></trkpt><trkpt lat="43.1103863998736" lon="1.4656397687477045"><ele>418.0</ele><time>2026-04-02T06:09:13Z</time></trkpt><trkpt lat="43.11033235092481" lon="1.4657702826046113"><ele>418.25</ele><time>2026-04-02T06:09:14Z</time></trkpt><trkpt lat="43.110236086849284" lon="1.465857446453125"><ele>418.5</ele><time>2026-04-02T06:09:15Z</time></trkpt><trkpt lat="43.11013056939268" lon="1.465949491544243"><ele>418.75</ele><time>2026-04-02T06:09:16Z</time></trkpt><trkpt lat="43.1100036840764" lon="1.46603444482895"><ele>419.0</ele><time>2026-04-02T06:09:17Z</time></trkpt><trkpt lat="43.10986687748163" lon="1.4661272820407694"><ele>421.3333333333333</ele><time>2026-04-02T06:09:18Z</time></trkpt><trkpt lat="43.1097138438884" lon="1.4662102556322676"><ele>423.66666666666663</ele><time>2026-04-02T06:09:19Z</time></trkpt><trkpt lat="43.10959449971921" lon="1.466348611852149"><ele>426.0</ele><time>2026-04-02T06:09:20Z</time></trkpt><trkpt lat="43.10949983983037" lon="1.466533420269833"><ele>426.0</ele><time>2026-04-02T06:09:21Z</time></trkpt><trkpt lat="43.1094392792862" lon="1.466746563082593"><ele>426.0</ele><time>2026-04-02T06:09:22Z</time></trkpt><trkpt lat="43.10940565556638" lon="1.4669895418139232"><ele>426.0</ele><time>2026-04-02T06:09:23Z</time></trkpt><trkpt lat="43.109378432689304" lon="1.467215810712805"><ele>425.66666666666663</ele><time>2026-04-02T06:09:24Z</time></trkpt><trkpt lat="43.109388172928796" lon="1.4674497039942227"><ele>425.3333333333333</ele><time>2026-04-02T06:09:25Z</time></trkpt><trkpt lat="43.109422800030345" lon="1.4676711700218492"><ele>425.0</ele><time>2026-04-02T06:09:26Z</time></trkpt><trkpt lat="43.109432393107845" lon="1.4678730471375403"><ele>424.5</ele><time>2026-04-02T06:09:27Z</time></trkpt><trkpt lat="43.109407236393274" lon="1.4680504111830588"><ele>424.0</ele><time>2026-04-02T06:09:28Z</time></trkpt><trkpt lat="43.10932297884147" lon="1.4682308858535345"><ele>423.5</ele><time>2026-04-02T06:09:29Z</time></trkpt><trkpt lat="43.10921146213105" lon="1.4683850036885087"><ele>423.0</ele><time>2026-04-02T06:09:30Z</time></trkpt><trkpt lat="43.109088265081105" lon="1.468522027173629"><ele>425.25</ele><time>2026-04-02T06:09:31Z</time></trkpt><trkpt lat="43.10897167445359" lon="1.4686608319444805"><ele>427.5</ele><time>2026-04-02T06:09:32Z</time></trkpt><trkpt lat="43.10886580560811" lon="1.4688062839790128"><ele>429.75</ele><time>2026-04-02T06:09:33Z</time></trkpt><trkpt lat="43.108783264825014" lon="1.4689553115103078"><ele>432.0</ele><time>2026-04-02T06:09:34Z</time></trkpt><trkpt lat="43.10873875543165" lon="1.4691189489096883"><ele>432.0</ele><time>2026-04-02T06:09:35Z</time></trkpt><trkpt lat="43.1087317018389" lon="1.4692932417132727"><ele>432.0</ele><time>2026-04-02T06:09:36Z</time></trkpt><trkpt lat="43.10875924776758" lon="1.4694754722580168"><ele>432.0</ele><time>2026-04-02T06:09:37Z</time></trkpt><trkpt lat="43.10881273250763" lon="1.4696739678028727"><ele>432.0</ele><time>2026-04-02T06:09:38Z</time></trkpt><trkpt lat="43.108893662028436" lon="1.4698943040075225"><ele>431.33333333333337</ele><time>2026-04-02T06:09:39Z</time></trkpt><trkpt lat="43.1089460301072" lon="1.470128219559922"><ele>430.6666666666667</ele><time>2026-04-02T06:09:40Z</time></trkpt><trkpt lat="43.10900489156992" lon="1.470350598507175"><ele>430.0</ele><time>2026-04-02T06:09:41Z</time></trkpt><trkpt lat="43.109080212552826" lon="1.4705726184833217"><ele>426.6666666666667</ele><time>2026-04-02T06:09:42Z</time></trkpt><trkpt lat="43.10913520396749" lon="1.470808175141951"><ele>423.33333333333337</ele><time>2026-04-02T06:09:43Z</time></trkpt><trkpt lat="43.10923289334217" lon="1.4710186708673456"><ele>420.0</ele><time>2026-04-02T06:09:44Z</time></trkpt><trkpt lat="43.10935647650196" lon="1.4711967494991602"><ele>422.66666666666663</ele><time>2026-04-02T06:09:45Z</time></trkpt><trkpt lat="43.10949946819754" lon="1.4713354612572"><ele>425.3333333333333</ele><time>2026-04-02T06:09:46Z</time></trkpt><trkpt lat="43.10963892475006" lon="1.4714717220638058"><ele>428.0</ele><time>2026-04-02T06:09:47Z</time></trkpt><trkpt lat="43.109745052205476" lon="1.4716020283109483"><ele>428.0</ele><time>2026-04-02T06:09:48Z</time></trkpt><trkpt lat="43.109815639453146" lon="1.47176915336433"><ele>428.0</ele><time>2026-04-02T06:09:49Z</time></trkpt><trkpt lat="43.10985666959103" lon="1.4719653460736217"><ele>428.0</ele><time>2026-04-02T06:09:50Z</time></trkpt><trkpt lat="43.10987352354143" lon="1.4721812240456402"><ele>428.0</ele><time>2026-04-02T06:09:51Z</time></trkpt><trkpt lat="43.10987848058956" lon="1.4724028284565225"><ele>428.3333333333333</ele><time>2026-04-02T06:09:52Z</time></trkpt><trkpt lat="43.109883218379764" lon="1.4726233597841767"><ele>428.66666666666663</ele><time>2026-04-02T06:09:53Z</time></trkpt><trkpt lat="43.10985280243425" lon="1.4728515732171217"><ele>429.0</ele><time>2026-04-02T06:09:54Z</time></trkpt><trkpt lat="43.10977439397592" lon="1.473057012408942"><ele>429.0</ele><time>2026-04-02T06:09:55Z</time></trkpt><trkpt lat="43.10969010359813" lon="1.4732624491980724"><ele>429.0</ele><time>2026-04-02T06:09:56Z</time></trkpt><trkpt lat="43.109617647814645" lon="1.4734915651619482"><ele>429.0</ele><time>2026-04-02T06:09:57Z</time></trkpt><trkpt lat="43.10955260468969" lon="1.473729103365593"><ele>429.33333333333337</ele><time>2026-04-02T06:09:58Z</time></trkpt><trkpt lat="43.10952014305605" lon="1.4739949649944233"><ele>429.6666666666667</ele><time>2026-04-02T06:09:59Z</time></trkpt><trkpt lat="43.10948979847937" lon="1.474297298072795"><ele>430.0</ele><time>2026-04-02T06:10:00Z</time></trkpt><trkpt lat="43.109456495507054" lon="1.4745992286395704"><ele>430.33333333333337</ele><time>2026-04-02T06:10:01Z</time></trkpt><trkpt lat="43.10943126581274" lon="1.4748404123611143"><ele>430.66666666666663</ele><time>2026-04-02T06:10:02Z</time></trkpt><trkpt lat="43.10942136957767" lon="1.475112528044509"><ele>431.0</ele><time>2026-04-02T06:10:03Z</time></trkpt><trkpt lat="43.1094403443879" lon="1.4753893388852677"><ele>430.3333333333333</ele><time>2026-04-02T06:10:04Z</time></trkpt><trkpt lat="43.10948575362345" lon="1.4756662804087388"><ele>429.66666666666663</ele><time>2026-04-02T06:10:05Z</time></trkpt><trkpt lat="43.10953628032166" lon="1.4759366615214984"><ele>429.0</ele><time>2026-04-02T06:10:06Z</time></trkpt><trkpt lat="43.10958428896785" lon="1.4761994113394263"><ele>426.0</ele><time>2026-04-02T06:10:07Z</time></trkpt><trkpt lat="43.10964024619774" lon="1.4764387965149361"><ele>423.0</ele><time>2026-04-02T06:10:08Z</time></trkpt><trkpt lat="43.10972323171559" lon="1.476649463813103"><ele>420.0</ele><time>2026-04-02T06:10:09Z</time></trkpt><trkpt lat="43.109855389075854" lon="1.4768335133003505"><ele>419.0</ele><time>2026-04-02T06:10:10Z</time></trkpt><trkpt lat="43.11000974738141" lon="1.477007671301496"><ele>418.0</ele><time>2026-04-02T06:10:11Z</time></trkpt><trkpt lat="43.11016802638036" lon="1.4771957225623877"><ele>417.0</ele><time>2026-04-02T06:10:12Z</time></trkpt><trkpt lat="43.11034059883963" lon="1.4773828102568"><ele>415.0</ele><time>2026-04-02T06:10:13Z</time></trkpt><trkpt lat="43.110516494990556" lon="1.4775821969202745"><ele>413.0</ele><time>2026-04-02T06:10:14Z</time></trkpt><trkpt lat="43.110689839772846" lon="1.4778054143780235"><ele>416.0</ele><time>2026-04-02T06:10:15Z</time></trkpt><trkpt lat="43.11085956657997" lon="1.4780408400616014"><ele>419.0</ele><time>2026-04-02T06:10:16Z</time></trkpt><trkpt lat="43.11102569764354" lon="1.4782802097284171"><ele>419.0</ele><time>2026-04-02T06:10:17Z</time></trkpt><trkpt lat="43.11118451790106" lon="1.4785197020392729"><ele>419.0</ele><time>2026-04-02T06:10:18Z</time></trkpt><trkpt lat="43.11131700258408" lon="1.4787751498168937"><ele>418.0</ele><time>2026-04-02T06:10:19Z</time></trkpt><trkpt lat="43.11143522880503" lon="1.4790368905461966"><ele>417.0</ele><time>2026-04-02T06:10:20Z</time></trkpt><trkpt lat="43.111542553688054" lon="1.4792990540903053"><ele>416.0</ele><time>2026-04-02T06:10:21Z</time></trkpt><trkpt lat="43.1116344718045" lon="1.479560022678108"><ele>422.0</ele><time>2026-04-02T06:10:22Z</time></trkpt><trkpt lat="43.11170728795844" lon="1.4798168458813437"><ele>428.0</ele><time>2026-04-02T06:10:23Z</time></trkpt><trkpt lat="43.111746481586124" lon="1.4800760278868914"><ele>434.0</ele><time>2026-04-02T06:10:24Z</time></trkpt><trkpt lat="43.111724896048884" lon="1.4803276307202742"><ele>436.0</ele><time>2026-04-02T06:10:25Z</time></trkpt><trkpt lat="43.111686238882136" lon="1.4805900636415286"><ele>438.0</ele><time>2026-04-02T06:10:26Z</time></trkpt><trkpt lat="43.111627916833356" lon="1.4808540992348183"><ele>440.0</ele><time>2026-04-02T06:10:27Z</time></trkpt><trkpt lat="43.11154273964635" lon="1.481127585253254"><ele>436.5</ele><time>2026-04-02T06:10:28Z</time></trkpt><trkpt lat="43.11144137414433" lon="1.4814097048332615"><ele>433.0</ele><time>2026-04-02T06:10:29Z</time></trkpt><trkpt lat="43.11134023730371" lon="1.481703469401019"><ele>433.0</ele><time>2026-04-02T06:10:30Z</time></trkpt><trkpt lat="43.11126030129026" lon="1.4820242949460447"><ele>433.0</ele><time>2026-04-02T06:10:31Z</time></trkpt><trkpt lat="43.11115737671233" lon="1.4823541136859755"><ele>436.0</ele><time>2026-04-02T06:10:32Z</time></trkpt><trkpt lat="43.11107073204666" lon="1.4826990911873663"><ele>439.0</ele><time>2026-04-02T06:10:33Z</time></trkpt><trkpt lat="43.11100258128816" lon="1.4830442173967338"><ele>443.0</ele><time>2026-04-02T06:10:34Z</time></trkpt><trkpt lat="43.110926760161796" lon="1.4833589161258782"><ele>447.0</ele><time>2026-04-02T06:10:35Z</time></trkpt><trkpt lat="43.11086242886851" lon="1.483645095339115"><ele>449.33333333333337</ele><time>2026-04-02T06:10:36Z</time></trkpt><trkpt lat="43.110810130652226" lon="1.4839184112180552"><ele>451.6666666666667</ele><time>2026-04-02T06:10:37Z</time></trkpt><trkpt lat="43.11074300390159" lon="1.4841574030006748"><ele>454.0</ele><time>2026-04-02T06:10:38Z</time></trkpt><trkpt lat="43.110695909630714" lon="1.4843703798201497"><ele>454.0</ele><time>2026-04-02T06:10:39Z</time></trkpt><trkpt lat="43.11066752322909" lon="1.4845720487765433"><ele>454.0</ele><time>2026-04-02T06:10:40Z</time></trkpt><trkpt lat="43.11064249548131" lon="1.4847310848780255"><ele>454.0</ele><time>2026-04-02T06:10:41Z</time></trkpt><trkpt lat="43.110650807721505" lon="1.4848975710409285"><ele>454.0</ele><time>2026-04-02T06:10:42Z</time></trkpt><trkpt lat="43.110704162411956" lon="1.485038700616039"><ele>454.25</ele><time>2026-04-02T06:10:43Z</time></trkpt><trkpt lat="43.110795869223764" lon="1.4851508255645283"><ele>454.5</ele><time>2026-04-02T06:10:44Z</time></trkpt><trkpt lat="43.11091905496093" lon="1.4852411394080323"><ele>454.75</ele><time>2026-04-02T06:10:45Z</time></trkpt><trkpt lat="43.111067688251545" lon="1.4853070066792207"><ele>455.0</ele><time>2026-04-02T06:10:46Z</time></trkpt><trkpt lat="43.11124582841421" lon="1.4853743009137443"><ele>453.66666666666663</ele><time>2026-04-02T06:10:47Z</time></trkpt><trkpt lat="43.11143648233362" lon="1.4854622410029463"><ele>452.33333333333337</ele><time>2026-04-02T06:10:48Z</time></trkpt><trkpt lat="43.11161483117468" lon="1.4855763507629418"><ele>451.0</ele><time>2026-04-02T06:10:49Z</time></trkpt><trkpt lat="43.11178518081201" lon="1.4857076510283964"><ele>449.6666666666667</ele><time>2026-04-02T06:10:50Z</time></trkpt><trkpt lat="43.11193752644724" lon="1.4858607327241882"><ele>448.33333333333337</ele><time>2026-04-02T06:10:51Z</time></trkpt><trkpt lat="43.11203932609545" lon="1.4860643829534457"><ele>447.0</ele><time>2026-04-02T06:10:52Z</time></trkpt><trkpt lat="43.11210576833763" lon="1.4862641512707175"><ele>445.0</ele><time>2026-04-02T06:10:53Z</time></trkpt><trkpt lat="43.11214023071948" lon="1.486454983934454"><ele>443.0</ele><time>2026-04-02T06:10:54Z</time></trkpt><trkpt lat="43.112156558756084" lon="1.4866804872881005"><ele>441.0</ele><time>2026-04-02T06:10:55Z</time></trkpt><trkpt lat="43.11217597804519" lon="1.4869507305206686"><ele>438.33333333333337</ele><time>2026-04-02T06:10:56Z</time></trkpt><trkpt lat="43.11219949167455" lon="1.487246713576663"><ele>435.6666666666667</ele><time>2026-04-02T06:10:57Z</time></trkpt><trkpt lat="43.112201628226344" lon="1.487547067126624"><ele>433.0</ele><time>2026-04-02T06:10:58Z</time></trkpt><trkpt lat="43.112192455686596" lon="1.4878432281242615"><ele>432.6666666666667</ele><time>2026-04-02T06:10:59Z</time></trkpt><trkpt lat="43.11217196591001" lon="1.4881419450662627"><ele>432.33333333333337</ele><time>2026-04-02T06:11:00Z</time></trkpt><trkpt lat="43.112145851789315" lon="1.4884459781018864"><ele>432.0</ele><time>2026-04-02T06:11:01Z</time></trkpt><trkpt lat="43.1121159650007" lon="1.4887429729124262"><ele>432.66666666666663</ele><time>2026-04-02T06:11:02Z</time></trkpt><trkpt lat="43.11208737456902" lon="1.4890309362418246"><ele>433.3333333333333</ele><time>2026-04-02T06:11:03Z</time></trkpt><trkpt lat="43.11206885954197" lon="1.4893097452464765"><ele>434.0</ele><time>2026-04-02T06:11:04Z</time></trkpt><trkpt lat="43.11204545923741" lon="1.4895812387255243"><ele>434.66666666666663</ele><time>2026-04-02T06:11:05Z</time></trkpt><trkpt lat="43.112018366236434" lon="1.4898447828868935"><ele>435.33333333333337</ele><time>2026-04-02T06:11:06Z</time></trkpt><trkpt lat="43.112008078840105" lon="1.4901107671171003"><ele>436.0</ele><time>2026-04-02T06:11:07Z</time></trkpt><trkpt lat="43.112016872356705" lon="1.490375684527618"><ele>434.0</ele><time>2026-04-02T06:11:08Z</time></trkpt><trkpt lat="43.11204945150037" lon="1.490625256309728"><ele>432.0</ele><time>2026-04-02T06:11:09Z</time></trkpt><trkpt lat="43.11209061564836" lon="1.490828661336522"><ele>430.0</ele><time>2026-04-02T06:11:10Z</time></trkpt><trkpt lat="43.11214974982524" lon="1.4910135433368155"><ele>430.0</ele><time>2026-04-02T06:11:11Z</time></trkpt><trkpt lat="43.11223207982393" lon="1.4911761003756134"><ele>430.0</ele><time>2026-04-02T06:11:12Z</time></trkpt><trkpt lat="43.112344272913305" lon="1.491322708258155"><ele>430.0</ele><time>2026-04-02T06:11:13Z</time></trkpt><trkpt lat="43.112474727421215" lon="1.4914758136743196"><ele>432.0</ele><time>2026-04-02T06:11:14Z</time></trkpt><trkpt lat="43.11260022750788" lon="1.4916610856770798"><ele>434.0</ele><time>2026-04-02T06:11:15Z</time></trkpt><trkpt lat="43.11270042383593" lon="1.4918894385508843"><ele>436.0</ele><time>2026-04-02T06:11:16Z</time></trkpt><trkpt lat="43.112734315258066" lon="1.4921421473600174"><ele>436.0</ele><time>2026-04-02T06:11:17Z</time></trkpt><trkpt lat="43.1127502867559" lon="1.4923751813409099"><ele>436.0</ele><time>2026-04-02T06:11:18Z</time></trkpt><trkpt lat="43.112730933590576" lon="1.4926042686659637"><ele>436.0</ele><time>2026-04-02T06:11:19Z</time></trkpt><trkpt lat="43.112668782358476" lon="1.4928314966111418"><ele>437.33333333333337</ele><time>2026-04-02T06:11:20Z</time></trkpt><trkpt lat="43.112578407886296" lon="1.4930275954520213"><ele>438.66666666666663</ele><time>2026-04-02T06:11:21Z</time></trkpt><trkpt lat="43.112464810517245" lon="1.4932112763558623"><ele>440.0</ele><time>2026-04-02T06:11:22Z</time></trkpt><trkpt lat="43.11233061473337" lon="1.493372929869086"><ele>439.66666666666663</ele><time>2026-04-02T06:11:23Z</time></trkpt><trkpt lat="43.11218870181811" lon="1.4935233385004674"><ele>439.33333333333337</ele><time>2026-04-02T06:11:24Z</time></trkpt><trkpt lat="43.11205469424447" lon="1.4936798141050545"><ele>439.0</ele><time>2026-04-02T06:11:25Z</time></trkpt><trkpt lat="43.11192564731615" lon="1.4938187773582996"><ele>439.0</ele><time>2026-04-02T06:11:26Z</time></trkpt><trkpt lat="43.111820164438974" lon="1.4939915786508775"><ele>439.0</ele><time>2026-04-02T06:11:27Z</time></trkpt><trkpt lat="43.11173665065081" lon="1.4942061803997988"><ele>439.0</ele><time>2026-04-02T06:11:28Z</time></trkpt><trkpt lat="43.11166220033723" lon="1.4944457876196018"><ele>438.33333333333337</ele><time>2026-04-02T06:11:29Z</time></trkpt><trkpt lat="43.11158528099063" lon="1.4946985281956682"><ele>437.66666666666663</ele><time>2026-04-02T06:11:30Z</time></trkpt><trkpt lat="43.11149858132065" lon="1.4949443399153457"><ele>437.0</ele><time>2026-04-02T06:11:31Z</time></trkpt><trkpt lat="43.11141161170275" lon="1.495189177929949"><ele>436.66666666666663</ele><time>2026-04-02T06:11:32Z</time></trkpt><trkpt lat="43.11132071303108" lon="1.4954293135508692"><ele>436.33333333333337</ele><time>2026-04-02T06:11:33Z</time></trkpt><trkpt lat="43.11122051638157" lon="1.4956580419534464"><ele>436.0</ele><time>2026-04-02T06:11:34Z</time></trkpt><trkpt lat="43.111117780393585" lon="1.4958706187774253"><ele>436.0</ele><time>2026-04-02T06:11:35Z</time></trkpt><trkpt lat="43.11102155397474" lon="1.4960719837067162"><ele>436.0</ele><time>2026-04-02T06:11:36Z</time></trkpt><trkpt lat="43.11093416776461" lon="1.4962597059590232"><ele>436.0</ele><time>2026-04-02T06:11:37Z</time></trkpt><trkpt lat="43.11086739615229" lon="1.496460986708207"><ele>436.6666666666667</ele><time>2026-04-02T06:11:38Z</time></trkpt><trkpt lat="43.110838965896505" lon="1.4966690384792398"><ele>437.33333333333337</ele><time>2026-04-02T06:11:39Z</time></trkpt><trkpt lat="43.110843475651365" lon="1.4968727649865836"><ele>438.0</ele><time>2026-04-02T06:11:40Z</time></trkpt><trkpt lat="43.110864160436684" lon="1.49708850251274"><ele>438.33333333333337</ele><time>2026-04-02T06:11:41Z</time></trkpt><trkpt lat="43.11091312947218" lon="1.4973156500994906"><ele>438.6666666666667</ele><time>2026-04-02T06:11:42Z</time></trkpt><trkpt lat="43.11098796575128" lon="1.4975516667036832"><ele>439.0</ele><time>2026-04-02T06:11:43Z</time></trkpt><trkpt lat="43.11106988332139" lon="1.4977925595219603"><ele>440.33333333333337</ele><time>2026-04-02T06:11:44Z</time></trkpt><trkpt lat="43.11114171486733" lon="1.4980362685333315"><ele>441.66666666666663</ele><time>2026-04-02T06:11:45Z</time></trkpt><trkpt lat="43.11120022488776" lon="1.4982682778599998"><ele>443.0</ele><time>2026-04-02T06:11:46Z</time></trkpt><trkpt lat="43.111255509648075" lon="1.4984973686524805"><ele>443.0</ele><time>2026-04-02T06:11:47Z</time></trkpt><trkpt lat="43.111269828774184" lon="1.498727613687731"><ele>443.0</ele><time>2026-04-02T06:11:48Z</time></trkpt><trkpt lat="43.11128769136496" lon="1.4989507435485037"><ele>443.0</ele><time>2026-04-02T06:11:49Z</time></trkpt><trkpt lat="43.11133253730033" lon="1.4991546023436835"><ele>443.3333333333333</ele><time>2026-04-02T06:11:50Z</time></trkpt><trkpt lat="43.11140818933124" lon="1.4993432648236926"><ele>443.66666666666663</ele><time>2026-04-02T06:11:51Z</time></trkpt><trkpt lat="43.11153461495378" lon="1.499513662943861"><ele>444.0</ele><time>2026-04-02T06:11:52Z</time></trkpt><trkpt lat="43.11167336464163" lon="1.4996679610398997"><ele>442.0</ele><time>2026-04-02T06:11:53Z</time></trkpt><trkpt lat="43.1117594715103" lon="1.4998411810589458"><ele>440.0</ele><time>2026-04-02T06:11:54Z</time></trkpt><trkpt lat="43.11184431817299" lon="1.5000857180031006"><ele>438.0</ele><time>2026-04-02T06:11:55Z</time></trkpt><trkpt lat="43.11192014912719" lon="1.500343905554934"><ele>437.33333333333337</ele><time>2026-04-02T06:11:56Z</time></trkpt><trkpt lat="43.11199668835791" lon="1.5005980672068169"><ele>436.6666666666667</ele><time>2026-04-02T06:11:57Z</time></trkpt><trkpt lat="43.11208667797667" lon="1.5008319285775364"><ele>436.0</ele><time>2026-04-02T06:11:58Z</time></trkpt><trkpt lat="43.11216399668408" lon="1.5010523185646234"><ele>436.0</ele><time>2026-04-02T06:11:59Z</time></trkpt><trkpt lat="43.112256197128644" lon="1.501244099951403"><ele>436.0</ele><time>2026-04-02T06:12:00Z</time></trkpt><trkpt lat="43.112371166041825" lon="1.5014084900914748"><ele>436.0</ele><time>2026-04-02T06:12:01Z</time></trkpt><trkpt lat="43.112484354825774" lon="1.5015886123801596"><ele>433.33333333333337</ele><time>2026-04-02T06:12:02Z</time></trkpt><trkpt lat="43.11255693192753" lon="1.5018105614612756"><ele>430.66666666666663</ele><time>2026-04-02T06:12:03Z</time></trkpt><trkpt lat="43.112616420498895" lon="1.5020467338240184"><ele>428.0</ele><time>2026-04-02T06:12:04Z</time></trkpt><trkpt lat="43.112669983741476" lon="1.5022962348985727"><ele>427.3333333333333</ele><time>2026-04-02T06:12:05Z</time></trkpt><trkpt lat="43.112735356450614" lon="1.5025401329803658"><ele>426.66666666666663</ele><time>2026-04-02T06:12:06Z</time></trkpt><trkpt lat="43.11278781774568" lon="1.5027902277613336"><ele>426.0</ele><time>2026-04-02T06:12:07Z</time></trkpt><trkpt lat="43.112841559158994" lon="1.5030249245067535"><ele>423.33333333333337</ele><time>2026-04-02T06:12:08Z</time></trkpt><trkpt lat="43.11288974033328" lon="1.5032499091349747"><ele>420.6666666666667</ele><time>2026-04-02T06:12:09Z</time></trkpt><trkpt lat="43.11290687230061" lon="1.5034722463110977"><ele>418.0</ele><time>2026-04-02T06:12:10Z</time></trkpt><trkpt lat="43.11290327363424" lon="1.5036888700650135"><ele>416.0</ele><time>2026-04-02T06:12:11Z</time></trkpt><trkpt lat="43.11287852784096" lon="1.503914689191586"><ele>414.0</ele><time>2026-04-02T06:12:12Z</time></trkpt><trkpt lat="43.11281694106968" lon="1.5041603109300246"><ele>412.0</ele><time>2026-04-02T06:12:13Z</time></trkpt><trkpt lat="43.11275996405616" lon="1.5044410639807682"><ele>412.0</ele><time>2026-04-02T06:12:14Z</time></trkpt><trkpt lat="43.11270289744191" lon="1.5047342426667478"><ele>412.0</ele><time>2026-04-02T06:12:15Z</time></trkpt><trkpt lat="43.11264527797319" lon="1.505026087596238"><ele>412.0</ele><time>2026-04-02T06:12:16Z</time></trkpt><trkpt lat="43.11259215259835" lon="1.5053561001792366"><ele>411.0</ele><time>2026-04-02T06:12:17Z</time></trkpt><trkpt lat="43.11252955903233" lon="1.5056745534047475"><ele>410.0</ele><time>2026-04-02T06:12:18Z</time></trkpt><trkpt lat="43.11245950152085" lon="1.506007945554639"><ele>403.0</ele><time>2026-04-02T06:12:19Z</time></trkpt><trkpt lat="43.11239417663448" lon="1.506327310673334"><ele>396.0</ele><time>2026-04-02T06:12:20Z</time></trkpt><trkpt lat="43.11232904425004" lon="1.5066495615441746"><ele>396.0</ele><time>2026-04-02T06:12:21Z</time></trkpt><trkpt lat="43.11226087581228" lon="1.506971758930356"><ele>396.0</ele><time>2026-04-02T06:12:22Z</time></trkpt><trkpt lat="43.112192470161894" lon="1.507286535703588"><ele>396.5</ele><time>2026-04-02T06:12:23Z</time></trkpt><trkpt lat="43.11212684865876" lon="1.5076139195518061"><ele>397.0</ele><time>2026-04-02T06:12:24Z</time></trkpt><trkpt lat="43.112067524614524" lon="1.5079285960178577"><ele>397.5</ele><time>2026-04-02T06:12:25Z</time></trkpt><trkpt lat="43.11200559556259" lon="1.5082539254175207"><ele>398.0</ele><time>2026-04-02T06:12:26Z</time></trkpt><trkpt lat="43.11193635642673" lon="1.5086000921475617"><ele>398.5</ele><time>2026-04-02T06:12:27Z</time></trkpt><trkpt lat="43.111870282873774" lon="1.5089295508507554"><ele>399.0</ele><time>2026-04-02T06:12:28Z</time></trkpt><trkpt lat="43.11181453582363" lon="1.5092287954149448"><ele>399.0</ele><time>2026-04-02T06:12:29Z</time></trkpt><trkpt lat="43.11175914246141" lon="1.5095210358639921"><ele>399.0</ele><time>2026-04-02T06:12:30Z</time></trkpt><trkpt lat="43.11170169055245" lon="1.5098020867155868"><ele>399.0</ele><time>2026-04-02T06:12:31Z</time></trkpt><trkpt lat="43.11164402847797" lon="1.510070574891256"><ele>399.33333333333337</ele><time>2026-04-02T06:12:32Z</time></trkpt><trkpt lat="43.111585518195376" lon="1.510342001081035"><ele>399.6666666666667</ele><time>2026-04-02T06:12:33Z</time></trkpt><trkpt lat="43.1115209208461" lon="1.51061813603685"><ele>400.0</ele><time>2026-04-02T06:12:34Z</time></trkpt><trkpt lat="43.11144566502498" lon="1.5108776662729644"><ele>398.0</ele><time>2026-04-02T06:12:35Z</time></trkpt><trkpt lat="43.111338274588505" lon="1.511100197703794"><ele>396.0</ele><time>2026-04-02T06:12:36Z</time></trkpt><trkpt lat="43.111226648635494" lon="1.5113196665136457"><ele>394.0</ele><time>2026-04-02T06:12:37Z</time></trkpt><trkpt lat="43.11112806726369" lon="1.5115436711189814"><ele>394.0</ele><time>2026-04-02T06:12:38Z</time></trkpt><trkpt lat="43.11102766519468" lon="1.5117657249714187"><ele>394.0</ele><time>2026-04-02T06:12:39Z</time></trkpt><trkpt lat="43.11094889718418" lon="1.5120155768766697"><ele>394.0</ele><time>2026-04-02T06:12:40Z</time></trkpt><trkpt lat="43.110875388138446" lon="1.5122847271207671"><ele>395.33333333333337</ele><time>2026-04-02T06:12:41Z</time></trkpt><trkpt lat="43.11080158772428" lon="1.512558910342007"><ele>396.66666666666663</ele><time>2026-04-02T06:12:42Z</time></trkpt><trkpt lat="43.11072441690704" lon="1.5128257706967705"><ele>398.0</ele><time>2026-04-02T06:12:43Z</time></trkpt><trkpt lat="43.110651992546714" lon="1.5131002850422812"><ele>395.3333333333333</ele><time>2026-04-02T06:12:44Z</time></trkpt><trkpt lat="43.11059204588932" lon="1.513380666152553"><ele>392.66666666666663</ele><time>2026-04-02T06:12:45Z</time></trkpt><trkpt lat="43.11054526276866" lon="1.5136648278538452"><ele>390.0</ele><time>2026-04-02T06:12:46Z</time></trkpt><trkpt lat="43.11051838632296" lon="1.5139450545858415"><ele>390.0</ele><time>2026-04-02T06:12:47Z</time></trkpt><trkpt lat="43.11048522206785" lon="1.5142155586505242"><ele>390.0</ele><time>2026-04-02T06:12:48Z</time></trkpt><trkpt lat="43.11045661454543" lon="1.5144783274031346"><ele>390.0</ele><time>2026-04-02T06:12:49Z</time></trkpt><trkpt lat="43.110433593944684" lon="1.5147478397526877"><ele>393.0</ele><time>2026-04-02T06:12:50Z</time></trkpt><trkpt lat="43.11060503686744" lon="1.5150639421215888"><ele>396.0</ele><time>2026-04-02T06:12:51Z</time></trkpt><trkpt lat="43.11068287799868" lon="1.515370981501106"><ele>392.0</ele><time>2026-04-02T06:12:52Z</time></trkpt><trkpt lat="43.11076891745604" lon="1.515663228112601"><ele>388.0</ele><time>2026-04-02T06:12:53Z</time></trkpt><trkpt lat="43.11085334418819" lon="1.5159436821315895"><ele>388.0</ele><time>2026-04-02T06:12:54Z</time></trkpt><trkpt lat="43.11093114339894" lon="1.516206836308835"><ele>388.0</ele><time>2026-04-02T06:12:55Z</time></trkpt><trkpt lat="43.11099836912598" lon="1.5164561075601013"><ele>388.0</ele><time>2026-04-02T06:12:56Z</time></trkpt><trkpt lat="43.11105672369035" lon="1.5167110702059161"><ele>386.33333333333337</ele><time>2026-04-02T06:12:57Z</time></trkpt><trkpt lat="43.11109938767647" lon="1.516973027474692"><ele>384.6666666666667</ele><time>2026-04-02T06:12:58Z</time></trkpt><trkpt lat="43.11110779467499" lon="1.5172483388073514"><ele>383.0</ele><time>2026-04-02T06:12:59Z</time></trkpt><trkpt lat="43.11108460885717" lon="1.5175326625650767"><ele>382.6666666666667</ele><time>2026-04-02T06:13:00Z</time></trkpt><trkpt lat="43.11102529531072" lon="1.5178115092102709"><ele>382.3333333333333</ele><time>2026-04-02T06:13:01Z</time></trkpt><trkpt lat="43.110933913383505" lon="1.5180915950148164"><ele>382.0</ele><time>2026-04-02T06:13:02Z</time></trkpt><trkpt lat="43.11081696146094" lon="1.5183534122143665"><ele>380.0</ele><time>2026-04-02T06:13:03Z</time></trkpt><trkpt lat="43.11070819789348" lon="1.5185908079460613"><ele>378.0</ele><time>2026-04-02T06:13:04Z</time></trkpt><trkpt lat="43.110618759582295" lon="1.5188389290543554"><ele>376.0</ele><time>2026-04-02T06:13:05Z</time></trkpt><trkpt lat="43.1105595022034" lon="1.519123432831502"><ele>374.0</ele><time>2026-04-02T06:13:06Z</time></trkpt><trkpt lat="43.110517327344276" lon="1.5194375777967415"><ele>372.0</ele><time>2026-04-02T06:13:07Z</time></trkpt><trkpt lat="43.110466563140314" lon="1.5197660032255214"><ele>370.5</ele><time>2026-04-02T06:13:08Z</time></trkpt><trkpt lat="43.11041405850686" lon="1.5200842654628912"><ele>369.0</ele><time>2026-04-02T06:13:09Z</time></trkpt><trkpt lat="43.11036531749318" lon="1.5203902247615788"><ele>367.6666666666667</ele><time>2026-04-02T06:13:10Z</time></trkpt><trkpt lat="43.11032574586044" lon="1.5206425834712496"><ele>366.33333333333337</ele><time>2026-04-02T06:13:11Z</time></trkpt><trkpt lat="43.11028461521358" lon="1.5208854869997308"><ele>365.0</ele><time>2026-04-02T06:13:12Z</time></trkpt><trkpt lat="43.11026651795293" lon="1.5211174910367342"><ele>363.6666666666667</ele><time>2026-04-02T06:13:13Z</time></trkpt><trkpt lat="43.110279239599784" lon="1.5213897788038993"><ele>362.3333333333333</ele><time>2026-04-02T06:13:14Z</time></trkpt><trkpt lat="43.11033858834248" lon="1.5216729039312227"><ele>361.0</ele><time>2026-04-02T06:13:15Z</time></trkpt><trkpt lat="43.110421485597186" lon="1.5219230354441788"><ele>359.66666666666663</ele><time>2026-04-02T06:13:16Z</time></trkpt><trkpt lat="43.11050211385041" lon="1.5221552815356267"><ele>358.3333333333333</ele><time>2026-04-02T06:13:17Z</time></trkpt><trkpt lat="43.11055575845141" lon="1.5223775722514652"><ele>357.0</ele><time>2026-04-02T06:13:18Z</time></trkpt><trkpt lat="43.110598301575614" lon="1.5225974336994665"><ele>357.0</ele><time>2026-04-02T06:13:19Z</time></trkpt><trkpt lat="43.110615520381444" lon="1.5228330183925802"><ele>357.0</ele><time>2026-04-02T06:13:20Z</time></trkpt><trkpt lat="43.110580340653215" lon="1.5230851406898114"><ele>357.0</ele><time>2026-04-02T06:13:21Z</time></trkpt><trkpt lat="43.110519748295374" lon="1.523370875249897"><ele>355.5</ele><time>2026-04-02T06:13:22Z</time></trkpt><trkpt lat="43.11044751061757" lon="1.523664256544038"><ele>354.0</ele><time>2026-04-02T06:13:23Z</time></trkpt><trkpt lat="43.11038353919845" lon="1.5239914729783852"><ele>352.5</ele><time>2026-04-02T06:13:24Z</time></trkpt><trkpt lat="43.110326943024695" lon="1.5243242444844352"><ele>351.0</ele><time>2026-04-02T06:13:25Z</time></trkpt><trkpt lat="43.110268203492076" lon="1.524661575957614"><ele>350.5</ele><time>2026-04-02T06:13:26Z</time></trkpt><trkpt lat="43.110202000318466" lon="1.5250013373080697"><ele>350.0</ele><time>2026-04-02T06:13:27Z</time></trkpt><trkpt lat="43.110140891694485" lon="1.525335138220542"><ele>348.0</ele><time>2026-04-02T06:13:28Z</time></trkpt><trkpt lat="43.110086108356086" lon="1.5256688581032154"><ele>346.0</ele><time>2026-04-02T06:13:29Z</time></trkpt><trkpt lat="43.11003052172145" lon="1.5260126163376706"><ele>344.5</ele><time>2026-04-02T06:13:30Z</time></trkpt><trkpt lat="43.1099714319552" lon="1.5263469155589082"><ele>343.0</ele><time>2026-04-02T06:13:31Z</time></trkpt><trkpt lat="43.10991095635177" lon="1.526690965009373"><ele>342.5</ele><time>2026-04-02T06:13:32Z</time></trkpt><trkpt lat="43.10985080482543" lon="1.5270325865582723"><ele>342.0</ele><time>2026-04-02T06:13:33Z</time></trkpt><trkpt lat="43.10978988041213" lon="1.52737091539457"><ele>342.0</ele><time>2026-04-02T06:13:34Z</time></trkpt><trkpt lat="43.109725659172405" lon="1.5277187378348813"><ele>342.0</ele><time>2026-04-02T06:13:35Z</time></trkpt><trkpt lat="43.10966270687769" lon="1.528061065668075"><ele>340.0</ele><time>2026-04-02T06:13:36Z</time></trkpt><trkpt lat="43.10959885217624" lon="1.5284148951920544"><ele>338.0</ele><time>2026-04-02T06:13:37Z</time></trkpt><trkpt lat="43.10953638633358" lon="1.5287718203002847"><ele>336.5</ele><time>2026-04-02T06:13:38Z</time></trkpt><trkpt lat="43.10947506833695" lon="1.5291209360030706"><ele>335.0</ele><time>2026-04-02T06:13:39Z</time></trkpt><trkpt lat="43.10940952296817" lon="1.5294877217828617"><ele>333.5</ele><time>2026-04-02T06:13:40Z</time></trkpt><trkpt lat="43.10934424577472" lon="1.5298510475776235"><ele>332.0</ele><time>2026-04-02T06:13:41Z</time></trkpt><trkpt lat="43.109281425467444" lon="1.5302097901905425"><ele>330.0</ele><time>2026-04-02T06:13:42Z</time></trkpt><trkpt lat="43.10922120749158" lon="1.530572091932237"><ele>328.0</ele><time>2026-04-02T06:13:43Z</time></trkpt><trkpt lat="43.10915789234063" lon="1.5309252487447413"><ele>327.5</ele><time>2026-04-02T06:13:44Z</time></trkpt><trkpt lat="43.10909527518401" lon="1.531274924459942"><ele>327.0</ele><time>2026-04-02T06:13:45Z</time></trkpt><trkpt lat="43.10903614754727" lon="1.5316527876646087"><ele>325.5</ele><time>2026-04-02T06:13:46Z</time></trkpt><trkpt lat="43.10897741678152" lon="1.532060134707689"><ele>324.0</ele><time>2026-04-02T06:13:47Z</time></trkpt><trkpt lat="43.10890905103847" lon="1.5324661813070897"><ele>324.0</ele><time>2026-04-02T06:13:48Z</time></trkpt><trkpt lat="43.10883643285127" lon="1.5328642098077583"><ele>324.0</ele><time>2026-04-02T06:13:49Z</time></trkpt><trkpt lat="43.108762560297286" lon="1.5332565940156342"><ele>323.0</ele><time>2026-04-02T06:13:50Z</time></trkpt><trkpt lat="43.10868149032537" lon="1.5336353729383783"><ele>322.0</ele><time>2026-04-02T06:13:51Z</time></trkpt><trkpt lat="43.10859781188511" lon="1.5340104703656392"><ele>321.0</ele><time>2026-04-02T06:13:52Z</time></trkpt><trkpt lat="43.1085287882916" lon="1.5343814223365257"><ele>320.0</ele><time>2026-04-02T06:13:53Z</time></trkpt><trkpt lat="43.1084674966306" lon="1.5347576647907526"><ele>319.5</ele><time>2026-04-02T06:13:54Z</time></trkpt><trkpt lat="43.10840398921719" lon="1.5351315882576606"><ele>319.0</ele><time>2026-04-02T06:13:55Z</time></trkpt><trkpt lat="43.10833316380334" lon="1.535501610925849"><ele>317.5</ele><time>2026-04-02T06:13:56Z</time></trkpt><trkpt lat="43.10826645232575" lon="1.5358778363980685"><ele>316.0</ele><time>2026-04-02T06:13:57Z</time></trkpt><trkpt lat="43.10820402469434" lon="1.536261037030823"><ele>315.5</ele><time>2026-04-02T06:13:58Z</time></trkpt><trkpt lat="43.10813642642607" lon="1.5366424543220971"><ele>315.0</ele><time>2026-04-02T06:13:59Z</time></trkpt><trkpt lat="43.10806514221945" lon="1.5370272221049062"><ele>314.5</ele><time>2026-04-02T06:14:00Z</time></trkpt><trkpt lat="43.10799511749954" lon="1.5374094713704467"><ele>314.0</ele><time>2026-04-02T06:14:01Z</time></trkpt><trkpt lat="43.10792667056739" lon="1.5377934426184086"><ele>313.0</ele><time>2026-04-02T06:14:02Z</time></trkpt><trkpt lat="43.10785612871354" lon="1.5381863427341953"><ele>312.0</ele><time>2026-04-02T06:14:03Z</time></trkpt><trkpt lat="43.10778826691447" lon="1.5385511686483773"><ele>311.0</ele><time>2026-04-02T06:14:04Z</time></trkpt><trkpt lat="43.107723909790856" lon="1.538929964878345"><ele>310.0</ele><time>2026-04-02T06:14:05Z</time></trkpt><trkpt lat="43.107659015087734" lon="1.5392921682671978"><ele>310.5</ele><time>2026-04-02T06:14:06Z</time></trkpt><trkpt lat="43.107596617198624" lon="1.5396285267499707"><ele>311.0</ele><time>2026-04-02T06:14:07Z</time></trkpt><trkpt lat="43.107538733475074" lon="1.5399484019983922"><ele>311.0</ele><time>2026-04-02T06:14:08Z</time></trkpt><trkpt lat="43.107496320479505" lon="1.5402756067954144"><ele>311.0</ele><time>2026-04-02T06:14:09Z</time></trkpt><trkpt lat="43.10747715585093" lon="1.54060190881334"><ele>310.5</ele><time>2026-04-02T06:14:10Z</time></trkpt><trkpt lat="43.10748659985959" lon="1.5409428628974484"><ele>310.0</ele><time>2026-04-02T06:14:11Z</time></trkpt><trkpt lat="43.10750908089343" lon="1.5413018259588145"><ele>309.5</ele><time>2026-04-02T06:14:12Z</time></trkpt><trkpt lat="43.107525911765606" lon="1.5416763396025877"><ele>309.0</ele><time>2026-04-02T06:14:13Z</time></trkpt><trkpt lat="43.10753542937723" lon="1.542058014185085"><ele>308.0</ele><time>2026-04-02T06:14:14Z</time></trkpt><trkpt lat="43.10754446903712" lon="1.5424455595753424"><ele>307.0</ele><time>2026-04-02T06:14:15Z</time></trkpt><trkpt lat="43.10755517692715" lon="1.54284524716699"><ele>306.0</ele><time>2026-04-02T06:14:16Z</time></trkpt><trkpt lat="43.10756661287688" lon="1.5432621406564315"><ele>305.0</ele><time>2026-04-02T06:14:17Z</time></trkpt><trkpt lat="43.107574951298595" lon="1.5436733215356708"><ele>304.5</ele><time>2026-04-02T06:14:18Z</time></trkpt><trkpt lat="43.1075791546586" lon="1.5440718200927712"><ele>304.0</ele><time>2026-04-02T06:14:19Z</time></trkpt><trkpt lat="43.1075854174625" lon="1.5444573073649936"><ele>303.0</ele><time>2026-04-02T06:14:20Z</time></trkpt><trkpt lat="43.10759409403333" lon="1.544840201290286"><ele>302.0</ele><time>2026-04-02T06:14:21Z</time></trkpt><trkpt lat="43.107604233840036" lon="1.5452336630179404"><ele>300.5</ele><time>2026-04-02T06:14:22Z</time></trkpt><trkpt lat="43.10761481905048" lon="1.5456268049659097"><ele>299.0</ele><time>2026-04-02T06:14:23Z</time></trkpt><trkpt lat="43.10762458127946" lon="1.5460323124078312"><ele>298.0</ele><time>2026-04-02T06:14:24Z</time></trkpt><trkpt lat="43.10763079923377" lon="1.5464200742361494"><ele>297.0</ele><time>2026-04-02T06:14:25Z</time></trkpt><trkpt lat="43.10764138913658" lon="1.5468007966311677"><ele>296.5</ele><time>2026-04-02T06:14:26Z</time></trkpt><trkpt lat="43.1076545471336" lon="1.547175688934285"><ele>296.0</ele><time>2026-04-02T06:14:27Z</time></trkpt><trkpt lat="43.10766151259973" lon="1.547552999916131"><ele>295.5</ele><time>2026-04-02T06:14:28Z</time></trkpt><trkpt lat="43.107665195995786" lon="1.5479326001768032"><ele>295.0</ele><time>2026-04-02T06:14:29Z</time></trkpt><trkpt lat="43.107675815198945" lon="1.5483161226510456"><ele>295.0</ele><time>2026-04-02T06:14:30Z</time></trkpt><trkpt lat="43.10768713716012" lon="1.54869824631775"><ele>295.0</ele><time>2026-04-02T06:14:31Z</time></trkpt><trkpt lat="43.10769707934765" lon="1.549094885972175"><ele>295.5</ele><time>2026-04-02T06:14:32Z</time></trkpt><trkpt lat="43.10770805360162" lon="1.5494938057749328"><ele>296.0</ele><time>2026-04-02T06:14:33Z</time></trkpt><trkpt lat="43.10771611251605" lon="1.5499080011153799"><ele>295.0</ele><time>2026-04-02T06:14:34Z</time></trkpt><trkpt lat="43.107720822586884" lon="1.550333255195905"><ele>294.0</ele><time>2026-04-02T06:14:35Z</time></trkpt><trkpt lat="43.107727953979335" lon="1.5507239976265201"><ele>294.0</ele><time>2026-04-02T06:14:36Z</time></trkpt><trkpt lat="43.10774178033254" lon="1.5510799075666002"><ele>294.0</ele><time>2026-04-02T06:14:37Z</time></trkpt><trkpt lat="43.107753754535416" lon="1.5514186516843482"><ele>294.6666666666667</ele><time>2026-04-02T06:14:38Z</time></trkpt><trkpt lat="43.10775906789372" lon="1.5517312561891266"><ele>295.33333333333337</ele><time>2026-04-02T06:14:39Z</time></trkpt><trkpt lat="43.10776463874328" lon="1.5519973791456674"><ele>296.0</ele><time>2026-04-02T06:14:40Z</time></trkpt><trkpt lat="43.10776858368535" lon="1.5522251145972925"><ele>296.5</ele><time>2026-04-02T06:14:41Z</time></trkpt><trkpt lat="43.10776722429763" lon="1.5524341216965478"><ele>297.0</ele><time>2026-04-02T06:14:42Z</time></trkpt><trkpt lat="43.10773655678965" lon="1.5526211630663"><ele>297.5</ele><time>2026-04-02T06:14:43Z</time></trkpt><trkpt lat="43.10766179566781" lon="1.552790911966316"><ele>298.0</ele><time>2026-04-02T06:14:44Z</time></trkpt><trkpt lat="43.10754093098191" lon="1.5529154998951693"><ele>299.3333333333333</ele><time>2026-04-02T06:14:45Z</time></trkpt><trkpt lat="43.10738575752038" lon="1.5529659143517593"><ele>300.6666666666667</ele><time>2026-04-02T06:14:46Z</time></trkpt><trkpt lat="43.107216543271825" lon="1.5530132489161292"><ele>302.0</ele><time>2026-04-02T06:14:47Z</time></trkpt><trkpt lat="43.107044904533765" lon="1.5530815107801725"><ele>302.0</ele><time>2026-04-02T06:14:48Z</time></trkpt><trkpt lat="43.10686401269687" lon="1.5531239298223103"><ele>302.0</ele><time>2026-04-02T06:14:49Z</time></trkpt><trkpt lat="43.10669621038687" lon="1.553225051269002"><ele>302.0</ele><time>2026-04-02T06:14:50Z</time></trkpt><trkpt lat="43.10653329041792" lon="1.5533921660278296"><ele>302.0</ele><time>2026-04-02T06:14:51Z</time></trkpt><trkpt lat="43.10636887974601" lon="1.5535929944693296"><ele>302.0</ele><time>2026-04-02T06:14:52Z</time></trkpt><trkpt lat="43.10621585666003" lon="1.553800642678542"><ele>302.0</ele><time>2026-04-02T06:14:53Z</time></trkpt><trkpt lat="43.10608501193327" lon="1.5540281069871666"><ele>302.0</ele><time>2026-04-02T06:14:54Z</time></trkpt><trkpt lat="43.105988859776524" lon="1.554285342436695"><ele>302.0</ele><time>2026-04-02T06:14:55Z</time></trkpt><trkpt lat="43.105899701442695" lon="1.554567970188993"><ele>302.0</ele><time>2026-04-02T06:14:56Z</time></trkpt><trkpt lat="43.10583152872929" lon="1.554869817907326"><ele>301.0</ele><time>2026-04-02T06:14:57Z</time></trkpt><trkpt lat="43.10575349972491" lon="1.5552011964471248"><ele>300.0</ele><time>2026-04-02T06:14:58Z</time></trkpt><trkpt lat="43.105679318767216" lon="1.5555243491562774"><ele>300.0</ele><time>2026-04-02T06:14:59Z</time></trkpt><trkpt lat="43.105606757974044" lon="1.5558560925278035"><ele>300.0</ele><time>2026-04-02T06:15:00Z</time></trkpt><trkpt lat="43.105542559883524" lon="1.5561962153198832"><ele>301.5</ele><time>2026-04-02T06:15:01Z</time></trkpt><trkpt lat="43.10549062369353" lon="1.5565319885138575"><ele>303.0</ele><time>2026-04-02T06:15:02Z</time></trkpt><trkpt lat="43.10541133656146" lon="1.5568551654751357"><ele>306.5</ele><time>2026-04-02T06:15:03Z</time></trkpt><trkpt lat="43.1053089182633" lon="1.557148444340291"><ele>310.0</ele><time>2026-04-02T06:15:04Z</time></trkpt><trkpt lat="43.105188172739645" lon="1.5574079643316996"><ele>310.0</ele><time>2026-04-02T06:15:05Z</time></trkpt><trkpt lat="43.105064131959736" lon="1.557646466589998"><ele>310.0</ele><time>2026-04-02T06:15:06Z</time></trkpt><trkpt lat="43.10496977208891" lon="1.5578879863619695"><ele>310.0</ele><time>2026-04-02T06:15:07Z</time></trkpt><trkpt lat="43.10488286157406" lon="1.5581653853571646"><ele>310.0</ele><time>2026-04-02T06:15:08Z</time></trkpt><trkpt lat="43.10482605841705" lon="1.558424259465384"><ele>310.0</ele><time>2026-04-02T06:15:09Z</time></trkpt><trkpt lat="43.10478635997387" lon="1.5586230630033795"><ele>310.0</ele><time>2026-04-02T06:15:10Z</time></trkpt><trkpt lat="43.10477060248946" lon="1.5588058686703026"><ele>310.0</ele><time>2026-04-02T06:15:11Z</time></trkpt><trkpt lat="43.104800160906976" lon="1.5590130360891765"><ele>310.0</ele><time>2026-04-02T06:15:12Z</time></trkpt><trkpt lat="43.10487683936022" lon="1.5592244715367738"><ele>310.0</ele><time>2026-04-02T06:15:13Z</time></trkpt><trkpt lat="43.10494151677125" lon="1.559443513476992"><ele>312.0</ele><time>2026-04-02T06:15:14Z</time></trkpt><trkpt lat="43.1049599058999" lon="1.5596612729841939"><ele>314.0</ele><time>2026-04-02T06:15:15Z</time></trkpt><trkpt lat="43.10492880901444" lon="1.5598715352231776"><ele>316.0</ele><time>2026-04-02T06:15:16Z</time></trkpt><trkpt lat="43.104869973306656" lon="1.560042766391767"><ele>316.0</ele><time>2026-04-02T06:15:17Z</time></trkpt><trkpt lat="43.10479842759562" lon="1.560178155433903"><ele>316.0</ele><time>2026-04-02T06:15:18Z</time></trkpt><trkpt lat="43.10470493442994" lon="1.5602997996467607"><ele>316.0</ele><time>2026-04-02T06:15:19Z</time></trkpt><trkpt lat="43.104620944502706" lon="1.560440164009027"><ele>316.0</ele><time>2026-04-02T06:15:20Z</time></trkpt><trkpt lat="43.104535051422744" lon="1.5606072119712482"><ele>319.5</ele><time>2026-04-02T06:15:21Z</time></trkpt><trkpt lat="43.10427911442133" lon="1.5606675701694277"><ele>323.0</ele><time>2026-04-02T06:15:22Z</time></trkpt><trkpt lat="43.10417012778429" lon="1.5609018624988882"><ele>323.0</ele><time>2026-04-02T06:15:23Z</time></trkpt><trkpt lat="43.10409038224555" lon="1.5611631105066375"><ele>323.0</ele><time>2026-04-02T06:15:24Z</time></trkpt><trkpt lat="43.10405475932271" lon="1.561447584054068"><ele>323.0</ele><time>2026-04-02T06:15:25Z</time></trkpt><trkpt lat="43.104038363055636" lon="1.561752728014836"><ele>321.33333333333337</ele><time>2026-04-02T06:15:26Z</time></trkpt><trkpt lat="43.104039896618254" lon="1.5620714213062035"><ele>319.6666666666667</ele><time>2026-04-02T06:15:27Z</time></trkpt><trkpt lat="43.104037209321206" lon="1.5623571707996304"><ele>318.0</ele><time>2026-04-02T06:15:28Z</time></trkpt><trkpt lat="43.10403829053425" lon="1.5626218988760299"><ele>318.0</ele><time>2026-04-02T06:15:29Z</time></trkpt><trkpt lat="43.10406665231815" lon="1.5628548152288735"><ele>318.0</ele><time>2026-04-02T06:15:30Z</time></trkpt><trkpt lat="43.10414249394269" lon="1.5630605159999318"><ele>318.0</ele><time>2026-04-02T06:15:31Z</time></trkpt><trkpt lat="43.10427545573648" lon="1.563257384428011"><ele>321.6666666666667</ele><time>2026-04-02T06:15:32Z</time></trkpt><trkpt lat="43.10444343159455" lon="1.56343377093406"><ele>325.33333333333337</ele><time>2026-04-02T06:15:33Z</time></trkpt><trkpt lat="43.10462164177261" lon="1.563580510626962"><ele>329.0</ele><time>2026-04-02T06:15:34Z</time></trkpt><trkpt lat="43.104801593508455" lon="1.563693480692363"><ele>331.33333333333337</ele><time>2026-04-02T06:15:35Z</time></trkpt><trkpt lat="43.104991057145114" lon="1.56374749670204"><ele>333.6666666666667</ele><time>2026-04-02T06:15:36Z</time></trkpt><trkpt lat="43.105167958707575" lon="1.5637420248937355"><ele>336.0</ele><time>2026-04-02T06:15:37Z</time></trkpt><trkpt lat="43.10531637785924" lon="1.5637495019106873"><ele>336.0</ele><time>2026-04-02T06:15:38Z</time></trkpt><trkpt lat="43.10543542616502" lon="1.5638335189889896"><ele>336.0</ele><time>2026-04-02T06:15:39Z</time></trkpt><trkpt lat="43.10551385229916" lon="1.5639696922483002"><ele>336.0</ele><time>2026-04-02T06:15:40Z</time></trkpt><trkpt lat="43.10555494922935" lon="1.5641359977636489"><ele>336.0</ele><time>2026-04-02T06:15:41Z</time></trkpt><trkpt lat="43.10556488169673" lon="1.5643143452151416"><ele>336.0</ele><time>2026-04-02T06:15:42Z</time></trkpt><trkpt lat="43.10554255167653" lon="1.5645015683193455"><ele>336.0</ele><time>2026-04-02T06:15:43Z</time></trkpt><trkpt lat="43.105500367461644" lon="1.564719248300373"><ele>336.0</ele><time>2026-04-02T06:15:44Z</time></trkpt><trkpt lat="43.10544930325759" lon="1.5649619646734558"><ele>337.3333333333333</ele><time>2026-04-02T06:15:45Z</time></trkpt><trkpt lat="43.10539925524892" lon="1.56522077884263"><ele>338.66666666666663</ele><time>2026-04-02T06:15:46Z</time></trkpt><trkpt lat="43.10535020982239" lon="1.565469955551976"><ele>340.0</ele><time>2026-04-02T06:15:47Z</time></trkpt><trkpt lat="43.105292694177784" lon="1.5657218968435922"><ele>341.66666666666663</ele><time>2026-04-02T06:15:48Z</time></trkpt><trkpt lat="43.10522914007749" lon="1.5659716567305617"><ele>343.3333333333333</ele><time>2026-04-02T06:15:49Z</time></trkpt><trkpt lat="43.10518563311168" lon="1.566203085949358"><ele>345.0</ele><time>2026-04-02T06:15:50Z</time></trkpt><trkpt lat="43.10514946991079" lon="1.5664061493490684"><ele>345.25</ele><time>2026-04-02T06:15:51Z</time></trkpt><trkpt lat="43.10512412240707" lon="1.5665957380240731"><ele>345.5</ele><time>2026-04-02T06:15:52Z</time></trkpt><trkpt lat="43.10514399906416" lon="1.5667854292990493"><ele>345.75</ele><time>2026-04-02T06:15:53Z</time></trkpt><trkpt lat="43.10521607339438" lon="1.566961907903761"><ele>346.0</ele><time>2026-04-02T06:15:54Z</time></trkpt><trkpt lat="43.10533125951245" lon="1.5671225090125107"><ele>344.66666666666663</ele><time>2026-04-02T06:15:55Z</time></trkpt><trkpt lat="43.10546677958618" lon="1.5672855975763922"><ele>343.3333333333333</ele><time>2026-04-02T06:15:56Z</time></trkpt><trkpt lat="43.105600305939284" lon="1.5674667521909915"><ele>342.0</ele><time>2026-04-02T06:15:57Z</time></trkpt><trkpt lat="43.10572126230873" lon="1.5676694255067924"><ele>345.6666666666667</ele><time>2026-04-02T06:15:58Z</time></trkpt><trkpt lat="43.10582431398413" lon="1.5678978471668559"><ele>349.33333333333337</ele><time>2026-04-02T06:15:59Z</time></trkpt><trkpt lat="43.10590928983513" lon="1.5681497150171937"><ele>353.0</ele><time>2026-04-02T06:16:00Z</time></trkpt><trkpt lat="43.10597095312228" lon="1.5684166751098867"><ele>353.0</ele><time>2026-04-02T06:16:01Z</time></trkpt><trkpt lat="43.10600879017423" lon="1.5686893313203896"><ele>353.0</ele><time>2026-04-02T06:16:02Z</time></trkpt><trkpt lat="43.10602205345924" lon="1.568964702787082"><ele>353.0</ele><time>2026-04-02T06:16:03Z</time></trkpt><trkpt lat="43.10601574534786" lon="1.5692392640188704"><ele>353.6666666666667</ele><time>2026-04-02T06:16:04Z</time></trkpt><trkpt lat="43.10599256787731" lon="1.5695146528786177"><ele>354.3333333333333</ele><time>2026-04-02T06:16:05Z</time></trkpt><trkpt lat="43.10594959228212" lon="1.569779944941385"><ele>355.0</ele><time>2026-04-02T06:16:06Z</time></trkpt><trkpt lat="43.10588653468745" lon="1.5700335453131757"><ele>356.3333333333333</ele><time>2026-04-02T06:16:07Z</time></trkpt><trkpt lat="43.10581250725067" lon="1.5702635174186648"><ele>357.6666666666667</ele><time>2026-04-02T06:16:08Z</time></trkpt><trkpt lat="43.105720787671686" lon="1.57046058498206"><ele>359.0</ele><time>2026-04-02T06:16:09Z</time></trkpt><trkpt lat="43.10559646731882" lon="1.570621574854928"><ele>359.25</ele><time>2026-04-02T06:16:10Z</time></trkpt><trkpt lat="43.10545680225253" lon="1.5707437416299768"><ele>359.5</ele><time>2026-04-02T06:16:11Z</time></trkpt><trkpt lat="43.10532970074437" lon="1.5708358749430444"><ele>359.75</ele><time>2026-04-02T06:16:12Z</time></trkpt><trkpt lat="43.10522740750186" lon="1.5709490023551078"><ele>360.0</ele><time>2026-04-02T06:16:13Z</time></trkpt><trkpt lat="43.10514301504501" lon="1.5710959765799444"><ele>361.0</ele><time>2026-04-02T06:16:14Z</time></trkpt><trkpt lat="43.105083421786965" lon="1.5712867187747084"><ele>362.0</ele><time>2026-04-02T06:16:15Z</time></trkpt><trkpt lat="43.10506929519302" lon="1.5715057733795628"><ele>363.0</ele><time>2026-04-02T06:16:16Z</time></trkpt><trkpt lat="43.10510618770758" lon="1.5717335619654038"><ele>363.0</ele><time>2026-04-02T06:16:17Z</time></trkpt><trkpt lat="43.105177648897694" lon="1.5719543999245984"><ele>363.0</ele><time>2026-04-02T06:16:18Z</time></trkpt><trkpt lat="43.105244156112015" lon="1.57218173454854"><ele>363.0</ele><time>2026-04-02T06:16:19Z</time></trkpt><trkpt lat="43.105262760890454" lon="1.5724342095508055"><ele>363.6666666666667</ele><time>2026-04-02T06:16:20Z</time></trkpt><trkpt lat="43.10523648726531" lon="1.5727092717555944"><ele>364.33333333333337</ele><time>2026-04-02T06:16:21Z</time></trkpt><trkpt lat="43.10518836792085" lon="1.57301632138188"><ele>365.0</ele><time>2026-04-02T06:16:22Z</time></trkpt><trkpt lat="43.105168220718795" lon="1.5732958654746938"><ele>367.0</ele><time>2026-04-02T06:16:23Z</time></trkpt><trkpt lat="43.10516668783752" lon="1.5735622879760025"><ele>369.0</ele><time>2026-04-02T06:16:24Z</time></trkpt><trkpt lat="43.10520066255773" lon="1.5738086197496657"><ele>371.0</ele><time>2026-04-02T06:16:25Z</time></trkpt><trkpt lat="43.10525531255228" lon="1.5740581243641658"><ele>373.33333333333337</ele><time>2026-04-02T06:16:26Z</time></trkpt><trkpt lat="43.10534398723504" lon="1.5742788285381006"><ele>375.6666666666667</ele><time>2026-04-02T06:16:27Z</time></trkpt><trkpt lat="43.10546891721991" lon="1.5745013738680358"><ele>378.0</ele><time>2026-04-02T06:16:28Z</time></trkpt><trkpt lat="43.105607729153945" lon="1.5747327996916274"><ele>378.3333333333333</ele><time>2026-04-02T06:16:29Z</time></trkpt><trkpt lat="43.10574751687424" lon="1.574974898889175"><ele>378.66666666666663</ele><time>2026-04-02T06:16:30Z</time></trkpt><trkpt lat="43.10588177544816" lon="1.575182150729802"><ele>379.0</ele><time>2026-04-02T06:16:31Z</time></trkpt><trkpt lat="43.10603756606054" lon="1.5753545468563896"><ele>381.66666666666663</ele><time>2026-04-02T06:16:32Z</time></trkpt><trkpt lat="43.10620729751887" lon="1.57546483238234"><ele>384.3333333333333</ele><time>2026-04-02T06:16:33Z</time></trkpt><trkpt lat="43.106378985660896" lon="1.5754893014355258"><ele>387.0</ele><time>2026-04-02T06:16:34Z</time></trkpt><trkpt lat="43.106542362928" lon="1.5754414755768391"><ele>387.0</ele><time>2026-04-02T06:16:35Z</time></trkpt><trkpt lat="43.10668267061653" lon="1.5753785021479498"><ele>387.0</ele><time>2026-04-02T06:16:36Z</time></trkpt><trkpt lat="43.10680080800876" lon="1.575320679800703"><ele>387.0</ele><time>2026-04-02T06:16:37Z</time></trkpt><trkpt lat="43.106917457103194" lon="1.5753745256334728"><ele>387.0</ele><time>2026-04-02T06:16:38Z</time></trkpt><trkpt lat="43.10693458561872" lon="1.5756173626828405"><ele>387.0</ele><time>2026-04-02T06:16:39Z</time></trkpt><trkpt lat="43.106958536386365" lon="1.57578058628375"><ele>387.0</ele><time>2026-04-02T06:16:40Z</time></trkpt><trkpt lat="43.10695362212007" lon="1.575981896170745"><ele>387.0</ele><time>2026-04-02T06:16:41Z</time></trkpt><trkpt lat="43.10692334893297" lon="1.576208682998226"><ele>387.0</ele><time>2026-04-02T06:16:42Z</time></trkpt><trkpt lat="43.10688502300915" lon="1.5764673500163389"><ele>389.0</ele><time>2026-04-02T06:16:43Z</time></trkpt><trkpt lat="43.1068493397923" lon="1.5767516348825181"><ele>391.0</ele><time>2026-04-02T06:16:44Z</time></trkpt><trkpt lat="43.10678175042128" lon="1.5770299906413585"><ele>393.0</ele><time>2026-04-02T06:16:45Z</time></trkpt><trkpt lat="43.10671101179731" lon="1.57727042095343"><ele>393.66666666666663</ele><time>2026-04-02T06:16:46Z</time></trkpt><trkpt lat="43.1066173917898" lon="1.5774927510570775"><ele>394.3333333333333</ele><time>2026-04-02T06:16:47Z</time></trkpt><trkpt lat="43.10648986732514" lon="1.5776939719420278"><ele>395.0</ele><time>2026-04-02T06:16:48Z</time></trkpt><trkpt lat="43.106348374931386" lon="1.5779010340981665"><ele>395.66666666666663</ele><time>2026-04-02T06:16:49Z</time></trkpt><trkpt lat="43.106188469725474" lon="1.578105398137992"><ele>396.33333333333337</ele><time>2026-04-02T06:16:50Z</time></trkpt><trkpt lat="43.10602037696311" lon="1.5783095158357754"><ele>397.0</ele><time>2026-04-02T06:16:51Z</time></trkpt><trkpt lat="43.10584830973259" lon="1.5785005422594813"><ele>397.6666666666667</ele><time>2026-04-02T06:16:52Z</time></trkpt><trkpt lat="43.10568252576608" lon="1.578674170921182"><ele>398.33333333333337</ele><time>2026-04-02T06:16:53Z</time></trkpt><trkpt lat="43.10553541979069" lon="1.5788340065570785"><ele>399.0</ele><time>2026-04-02T06:16:54Z</time></trkpt><trkpt lat="43.10540166660227" lon="1.5789896641178665"><ele>399.0</ele><time>2026-04-02T06:16:55Z</time></trkpt><trkpt lat="43.10529511792799" lon="1.5791617948997818"><ele>399.0</ele><time>2026-04-02T06:16:56Z</time></trkpt><trkpt lat="43.10520558555177" lon="1.5793586973170186"><ele>399.0</ele><time>2026-04-02T06:16:57Z</time></trkpt><trkpt lat="43.1051462022529" lon="1.579610889826728"><ele>398.0</ele><time>2026-04-02T06:16:58Z</time></trkpt><trkpt lat="43.10508637719977" lon="1.5798748276655945"><ele>397.0</ele><time>2026-04-02T06:16:59Z</time></trkpt><trkpt lat="43.105017226746845" lon="1.580142344287499"><ele>396.0</ele><time>2026-04-02T06:17:00Z</time></trkpt><trkpt lat="43.104952529235796" lon="1.5803931726347213"><ele>395.66666666666663</ele><time>2026-04-02T06:17:01Z</time></trkpt><trkpt lat="43.10491337523425" lon="1.580605543724749"><ele>395.3333333333333</ele><time>2026-04-02T06:17:02Z</time></trkpt><trkpt lat="43.10491496287188" lon="1.5808029031509565"><ele>395.0</ele><time>2026-04-02T06:17:03Z</time></trkpt><trkpt lat="43.10497017339912" lon="1.5809937951174395"><ele>395.0</ele><time>2026-04-02T06:17:04Z</time></trkpt><trkpt lat="43.105064553439966" lon="1.5811730777688666"><ele>395.0</ele><time>2026-04-02T06:17:05Z</time></trkpt><trkpt lat="43.10517899228016" lon="1.5813572365492852"><ele>395.0</ele><time>2026-04-02T06:17:06Z</time></trkpt><trkpt lat="43.105246248871396" lon="1.5815863053596693"><ele>396.66666666666663</ele><time>2026-04-02T06:17:07Z</time></trkpt><trkpt lat="43.105267207232615" lon="1.581827228780296"><ele>398.33333333333337</ele><time>2026-04-02T06:17:08Z</time></trkpt><trkpt lat="43.10528876122152" lon="1.5820619282614925"><ele>400.0</ele><time>2026-04-02T06:17:09Z</time></trkpt><trkpt lat="43.105326361655194" lon="1.5822797565600195"><ele>401.33333333333337</ele><time>2026-04-02T06:17:10Z</time></trkpt><trkpt lat="43.105393033772295" lon="1.5825100219140558"><ele>402.66666666666663</ele><time>2026-04-02T06:17:11Z</time></trkpt><trkpt lat="43.10550631819014" lon="1.5827067575172558"><ele>404.0</ele><time>2026-04-02T06:17:12Z</time></trkpt><trkpt lat="43.105624846515916" lon="1.5829050917721386"><ele>403.66666666666663</ele><time>2026-04-02T06:17:13Z</time></trkpt><trkpt lat="43.10572254611745" lon="1.5831207120383048"><ele>403.33333333333337</ele><time>2026-04-02T06:17:14Z</time></trkpt><trkpt lat="43.10580234980657" lon="1.583367518753117"><ele>403.0</ele><time>2026-04-02T06:17:15Z</time></trkpt><trkpt lat="43.10584094206899" lon="1.5836536653188598"><ele>404.33333333333337</ele><time>2026-04-02T06:17:16Z</time></trkpt><trkpt lat="43.10592196504327" lon="1.5839036148093686"><ele>405.66666666666663</ele><time>2026-04-02T06:17:17Z</time></trkpt><trkpt lat="43.1059921396809" lon="1.5841371725251574"><ele>407.0</ele><time>2026-04-02T06:17:18Z</time></trkpt><trkpt lat="43.10603666210271" lon="1.584353353600152"><ele>405.66666666666663</ele><time>2026-04-02T06:17:19Z</time></trkpt><trkpt lat="43.106041104468154" lon="1.5845551713900718"><ele>404.33333333333337</ele><time>2026-04-02T06:17:20Z</time></trkpt><trkpt lat="43.10600723062051" lon="1.5847939738420131"><ele>403.0</ele><time>2026-04-02T06:17:21Z</time></trkpt><trkpt lat="43.1059951478347" lon="1.585054779400529"><ele>403.0</ele><time>2026-04-02T06:17:22Z</time></trkpt><trkpt lat="43.105956465269486" lon="1.585307024965214"><ele>403.0</ele><time>2026-04-02T06:17:23Z</time></trkpt><trkpt lat="43.10594416719984" lon="1.5855656604862898"><ele>403.0</ele><time>2026-04-02T06:17:24Z</time></trkpt><trkpt lat="43.10594861328403" lon="1.5858176241857906"><ele>403.33333333333337</ele><time>2026-04-02T06:17:25Z</time></trkpt><trkpt lat="43.10595171520698" lon="1.5860683479995534"><ele>403.66666666666663</ele><time>2026-04-02T06:17:26Z</time></trkpt><trkpt lat="43.105956380479746" lon="1.5863076673260292"><ele>404.0</ele><time>2026-04-02T06:17:27Z</time></trkpt><trkpt lat="43.105962789689556" lon="1.5865192688610719"><ele>405.5</ele><time>2026-04-02T06:17:28Z</time></trkpt><trkpt lat="43.1059830436501" lon="1.5867092672530174"><ele>407.0</ele><time>2026-04-02T06:17:29Z</time></trkpt><trkpt lat="43.10601883073473" lon="1.5868790454104376"><ele>408.5</ele><time>2026-04-02T06:17:30Z</time></trkpt><trkpt lat="43.10608520501603" lon="1.5870119118060897"><ele>410.0</ele><time>2026-04-02T06:17:31Z</time></trkpt><trkpt lat="43.10618244730238" lon="1.5870962146698142"><ele>410.75</ele><time>2026-04-02T06:17:32Z</time></trkpt><trkpt lat="43.10630683325772" lon="1.5871487338595622"><ele>411.5</ele><time>2026-04-02T06:17:33Z</time></trkpt><trkpt lat="43.10644582560682" lon="1.5871630338982257"><ele>412.25</ele><time>2026-04-02T06:17:34Z</time></trkpt><trkpt lat="43.106596815319776" lon="1.5871424286081737"><ele>413.0</ele><time>2026-04-02T06:17:35Z</time></trkpt><trkpt lat="43.106745102434346" lon="1.5870829339900476"><ele>409.66666666666663</ele><time>2026-04-02T06:17:36Z</time></trkpt><trkpt lat="43.106888100310385" lon="1.586980933173845"><ele>406.33333333333337</ele><time>2026-04-02T06:17:37Z</time></trkpt><trkpt lat="43.107045011099615" lon="1.58684313868687"><ele>403.0</ele><time>2026-04-02T06:17:38Z</time></trkpt><trkpt lat="43.107220658375276" lon="1.5866849008286892"><ele>403.0</ele><time>2026-04-02T06:17:39Z</time></trkpt><trkpt lat="43.10739394396842" lon="1.586528654406423"><ele>403.0</ele><time>2026-04-02T06:17:40Z</time></trkpt><trkpt lat="43.107550522540876" lon="1.5863814027955794"><ele>403.0</ele><time>2026-04-02T06:17:41Z</time></trkpt><trkpt lat="43.107696261920566" lon="1.5862204366821302"><ele>403.6666666666667</ele><time>2026-04-02T06:17:42Z</time></trkpt><trkpt lat="43.10780745894553" lon="1.5860144937926146"><ele>404.33333333333337</ele><time>2026-04-02T06:17:43Z</time></trkpt><trkpt lat="43.10788776419185" lon="1.585777908653162"><ele>405.0</ele><time>2026-04-02T06:17:44Z</time></trkpt><trkpt lat="43.10795384747911" lon="1.5855213666512935"><ele>404.33333333333337</ele><time>2026-04-02T06:17:45Z</time></trkpt><trkpt lat="43.108019540067914" lon="1.5852382583861768"><ele>403.6666666666667</ele><time>2026-04-02T06:17:46Z</time></trkpt><trkpt lat="43.10807803082237" lon="1.5849372104767099"><ele>403.0</ele><time>2026-04-02T06:17:47Z</time></trkpt><trkpt lat="43.10812970125496" lon="1.5846646046287225"><ele>401.0</ele><time>2026-04-02T06:17:48Z</time></trkpt><trkpt lat="43.108191955462814" lon="1.584435864389992"><ele>399.0</ele><time>2026-04-02T06:17:49Z</time></trkpt><trkpt lat="43.108276484280424" lon="1.5842305218423218"><ele>397.0</ele><time>2026-04-02T06:17:50Z</time></trkpt><trkpt lat="43.10838442377405" lon="1.5840273267261895"><ele>401.0</ele><time>2026-04-02T06:17:51Z</time></trkpt><trkpt lat="43.10850564683241" lon="1.5838251793682905"><ele>405.0</ele><time>2026-04-02T06:17:52Z</time></trkpt><trkpt lat="43.10861849485583" lon="1.5836255677538287"><ele>409.0</ele><time>2026-04-02T06:17:53Z</time></trkpt><trkpt lat="43.10870037198709" lon="1.5834513898675195"><ele>409.0</ele><time>2026-04-02T06:17:54Z</time></trkpt><trkpt lat="43.108755726219805" lon="1.5833269622670727"><ele>409.0</ele><time>2026-04-02T06:17:55Z</time></trkpt><trkpt lat="43.10882954397662" lon="1.5832540556800672"><ele>409.0</ele><time>2026-04-02T06:17:56Z</time></trkpt><trkpt lat="43.10892839392121" lon="1.5832196595891979"><ele>409.0</ele><time>2026-04-02T06:17:57Z</time></trkpt><trkpt lat="43.109036476137334" lon="1.5832394774907568"><ele>409.0</ele><time>2026-04-02T06:17:58Z</time></trkpt><trkpt lat="43.10913158631744" lon="1.583365245266125"><ele>409.6666666666667</ele><time>2026-04-02T06:17:59Z</time></trkpt><trkpt lat="43.109257152921145" lon="1.5834894253611072"><ele>410.33333333333337</ele><time>2026-04-02T06:18:00Z</time></trkpt><trkpt lat="43.109409852384665" lon="1.5836375913069778"><ele>411.0</ele><time>2026-04-02T06:18:01Z</time></trkpt><trkpt lat="43.109558258115165" lon="1.583799688607681"><ele>414.0</ele><time>2026-04-02T06:18:02Z</time></trkpt><trkpt lat="43.10970884579406" lon="1.583946290335863"><ele>417.0</ele><time>2026-04-02T06:18:03Z</time></trkpt><trkpt lat="43.10985152222857" lon="1.5840908639129883"><ele>420.0</ele><time>2026-04-02T06:18:04Z</time></trkpt><trkpt lat="43.10997406481409" lon="1.584237112960135"><ele>420.0</ele><time>2026-04-02T06:18:05Z</time></trkpt><trkpt lat="43.11008007291828" lon="1.5843764102464548"><ele>420.0</ele><time>2026-04-02T06:18:06Z</time></trkpt><trkpt lat="43.1101919583935" lon="1.584491947993553"><ele>420.0</ele><time>2026-04-02T06:18:07Z</time></trkpt><trkpt lat="43.11033674070815" lon="1.5845656792269291"><ele>420.0</ele><time>2026-04-02T06:18:08Z</time></trkpt><trkpt lat="43.11049979451448" lon="1.584594226514743"><ele>420.33333333333337</ele><time>2026-04-02T06:18:09Z</time></trkpt><trkpt lat="43.11068757081256" lon="1.5846038126558002"><ele>420.6666666666667</ele><time>2026-04-02T06:18:10Z</time></trkpt><trkpt lat="43.110871560884846" lon="1.5846007065232812"><ele>421.0</ele><time>2026-04-02T06:18:11Z</time></trkpt><trkpt lat="43.11104251415462" lon="1.584583132090272"><ele>420.33333333333337</ele><time>2026-04-02T06:18:12Z</time></trkpt><trkpt lat="43.11119703540959" lon="1.5845377327212689"><ele>419.66666666666663</ele><time>2026-04-02T06:18:13Z</time></trkpt><trkpt lat="43.111332208023775" lon="1.584449056334887"><ele>419.0</ele><time>2026-04-02T06:18:14Z</time></trkpt><trkpt lat="43.11144452637774" lon="1.5843207196164568"><ele>419.0</ele><time>2026-04-02T06:18:15Z</time></trkpt><trkpt lat="43.1115229226593" lon="1.5842046270775254"><ele>419.0</ele><time>2026-04-02T06:18:16Z</time></trkpt><trkpt lat="43.111575293410176" lon="1.5841308575714415"><ele>419.0</ele><time>2026-04-02T06:18:17Z</time></trkpt><trkpt lat="43.111646284965595" lon="1.5841123068210696"><ele>419.0</ele><time>2026-04-02T06:18:19Z</time></trkpt><trkpt lat="43.11167495996407" lon="1.5842063763703258"><ele>419.0</ele><time>2026-04-02T06:18:21Z</time></trkpt><trkpt lat="43.111565619769074" lon="1.5843747306729759"><ele>416.66666666666663</ele><time>2026-04-02T06:18:23Z</time></trkpt><trkpt lat="43.11147421666227" lon="1.5845288350830378"><ele>414.33333333333337</ele><time>2026-04-02T06:18:24Z</time></trkpt><trkpt lat="43.11134227507357" lon="1.5846940844211892"><ele>412.0</ele><time>2026-04-02T06:18:25Z</time></trkpt><trkpt lat="43.111203126012825" lon="1.5848539573336178"><ele>412.0</ele><time>2026-04-02T06:18:26Z</time></trkpt><trkpt lat="43.11103519238574" lon="1.5849683787221134"><ele>412.0</ele><time>2026-04-02T06:18:27Z</time></trkpt><trkpt lat="43.11085293590682" lon="1.5850662009153866"><ele>412.0</ele><time>2026-04-02T06:18:28Z</time></trkpt><trkpt lat="43.110670279772926" lon="1.5851815322381666"><ele>413.6666666666667</ele><time>2026-04-02T06:18:29Z</time></trkpt><trkpt lat="43.11050009840757" lon="1.5852716991365723"><ele>415.33333333333337</ele><time>2026-04-02T06:18:30Z</time></trkpt><trkpt lat="43.110356380852544" lon="1.5854006565388854"><ele>417.0</ele><time>2026-04-02T06:18:31Z</time></trkpt><trkpt lat="43.11023687820501" lon="1.5855538913910354"><ele>417.0</ele><time>2026-04-02T06:18:32Z</time></trkpt><trkpt lat="43.11015794749727" lon="1.585726137161199"><ele>417.0</ele><time>2026-04-02T06:18:33Z</time></trkpt><trkpt lat="43.11012937930136" lon="1.5858883363495138"><ele>417.0</ele><time>2026-04-02T06:18:34Z</time></trkpt><trkpt lat="43.11013345110246" lon="1.5860695345336966"><ele>417.0</ele><time>2026-04-02T06:18:35Z</time></trkpt><trkpt lat="43.11019690760011" lon="1.5862269713294341"><ele>416.0</ele><time>2026-04-02T06:18:36Z</time></trkpt><trkpt lat="43.11031444684473" lon="1.5863819214405517"><ele>415.0</ele><time>2026-04-02T06:18:37Z</time></trkpt><trkpt lat="43.11043307537426" lon="1.5865524153299781"><ele>414.0</ele><time>2026-04-02T06:18:38Z</time></trkpt><trkpt lat="43.110487538422475" lon="1.5867478859309325"><ele>414.0</ele><time>2026-04-02T06:18:39Z</time></trkpt><trkpt lat="43.11048876099089" lon="1.5869388945581597"><ele>414.0</ele><time>2026-04-02T06:18:40Z</time></trkpt><trkpt lat="43.110480257493286" lon="1.5871761648541372"><ele>414.0</ele><time>2026-04-02T06:18:41Z</time></trkpt><trkpt lat="43.11046212860468" lon="1.5874546280540778"><ele>413.66666666666663</ele><time>2026-04-02T06:18:42Z</time></trkpt><trkpt lat="43.110442698878074" lon="1.587752086162725"><ele>413.3333333333333</ele><time>2026-04-02T06:18:43Z</time></trkpt><trkpt lat="43.110419942455145" lon="1.5880585655199342"><ele>413.0</ele><time>2026-04-02T06:18:44Z</time></trkpt><trkpt lat="43.110394483841496" lon="1.5883301432973629"><ele>412.3333333333333</ele><time>2026-04-02T06:18:45Z</time></trkpt><trkpt lat="43.110369440119044" lon="1.5885668599897647"><ele>411.66666666666663</ele><time>2026-04-02T06:18:46Z</time></trkpt><trkpt lat="43.11038822825567" lon="1.5887890456767457"><ele>411.0</ele><time>2026-04-02T06:18:47Z</time></trkpt><trkpt lat="43.11043815338588" lon="1.5890069985362227"><ele>408.66666666666663</ele><time>2026-04-02T06:18:48Z</time></trkpt><trkpt lat="43.1105432296767" lon="1.5892154276687873"><ele>406.3333333333333</ele><time>2026-04-02T06:18:49Z</time></trkpt><trkpt lat="43.110671212065576" lon="1.5893965585365526"><ele>404.0</ele><time>2026-04-02T06:18:50Z</time></trkpt><trkpt lat="43.110766577754305" lon="1.5896142450307293"><ele>398.0</ele><time>2026-04-02T06:18:51Z</time></trkpt><trkpt lat="43.11084453139721" lon="1.5898398974531247"><ele>392.0</ele><time>2026-04-02T06:18:52Z</time></trkpt><trkpt lat="43.110964545675145" lon="1.5900136628225947"><ele>386.0</ele><time>2026-04-02T06:18:53Z</time></trkpt><trkpt lat="43.11108781619234" lon="1.5901590811058128"><ele>386.0</ele><time>2026-04-02T06:18:54Z</time></trkpt><trkpt lat="43.11124030434235" lon="1.5902389686695475"><ele>386.0</ele><time>2026-04-02T06:18:55Z</time></trkpt><trkpt lat="43.11135408408688" lon="1.59037120002573"><ele>386.0</ele><time>2026-04-02T06:18:56Z</time></trkpt><trkpt lat="43.111475508852834" lon="1.5905228767647182"><ele>386.66666666666663</ele><time>2026-04-02T06:18:57Z</time></trkpt><trkpt lat="43.11153856860607" lon="1.5907351143003996"><ele>387.33333333333337</ele><time>2026-04-02T06:18:58Z</time></trkpt><trkpt lat="43.1115686847806" lon="1.5909592271330948"><ele>388.0</ele><time>2026-04-02T06:18:59Z</time></trkpt><trkpt lat="43.11156507095864" lon="1.5911994496258277"><ele>388.0</ele><time>2026-04-02T06:19:00Z</time></trkpt><trkpt lat="43.111547479278634" lon="1.591429408896069"><ele>388.0</ele><time>2026-04-02T06:19:01Z</time></trkpt><trkpt lat="43.11156398586622" lon="1.5916344826486173"><ele>388.0</ele><time>2026-04-02T06:19:02Z</time></trkpt><trkpt lat="43.11163243204047" lon="1.591819895037896"><ele>384.6666666666667</ele><time>2026-04-02T06:19:03Z</time></trkpt><trkpt lat="43.111782394832744" lon="1.591956410205598"><ele>381.33333333333337</ele><time>2026-04-02T06:19:04Z</time></trkpt><trkpt lat="43.11193676881932" lon="1.5921235898060027"><ele>378.0</ele><time>2026-04-02T06:19:05Z</time></trkpt><trkpt lat="43.112082819404364" lon="1.592322409811164"><ele>378.0</ele><time>2026-04-02T06:19:06Z</time></trkpt><trkpt lat="43.112222677806265" lon="1.592515820248732"><ele>378.0</ele><time>2026-04-02T06:19:07Z</time></trkpt><trkpt lat="43.11236418439474" lon="1.5926838726485222"><ele>378.0</ele><time>2026-04-02T06:19:08Z</time></trkpt><trkpt lat="43.112519295045594" lon="1.5928079369183694"><ele>375.0</ele><time>2026-04-02T06:19:09Z</time></trkpt><trkpt lat="43.11268710475852" lon="1.5928749420740538"><ele>372.0</ele><time>2026-04-02T06:19:10Z</time></trkpt><trkpt lat="43.1128595182229" lon="1.5928918506127625"><ele>369.0</ele><time>2026-04-02T06:19:11Z</time></trkpt><trkpt lat="43.11302446092908" lon="1.5928529606950912"><ele>368.0</ele><time>2026-04-02T06:19:12Z</time></trkpt><trkpt lat="43.11318304865374" lon="1.5927918305746889"><ele>367.0</ele><time>2026-04-02T06:19:13Z</time></trkpt><trkpt lat="43.113337921212974" lon="1.5927670236529075"><ele>366.0</ele><time>2026-04-02T06:19:14Z</time></trkpt><trkpt lat="43.11350560099926" lon="1.5927626080527466"><ele>364.3333333333333</ele><time>2026-04-02T06:19:15Z</time></trkpt><trkpt lat="43.1136767365458" lon="1.592766622012528"><ele>362.66666666666663</ele><time>2026-04-02T06:19:16Z</time></trkpt><trkpt lat="43.11377619072089" lon="1.5928973830002928"><ele>361.0</ele><time>2026-04-02T06:19:17Z</time></trkpt><trkpt lat="43.11389875491517" lon="1.5930102284340366"><ele>361.0</ele><time>2026-04-02T06:19:18Z</time></trkpt><trkpt lat="43.11398546689056" lon="1.5931465562805607"><ele>361.0</ele><time>2026-04-02T06:19:19Z</time></trkpt><trkpt lat="43.11403642642897" lon="1.5933249689813906"><ele>361.0</ele><time>2026-04-02T06:19:20Z</time></trkpt><trkpt lat="43.11406294646674" lon="1.5935479780141595"><ele>361.0</ele><time>2026-04-02T06:19:21Z</time></trkpt><trkpt lat="43.114026120017435" lon="1.5938075290648135"><ele>361.0</ele><time>2026-04-02T06:19:22Z</time></trkpt><trkpt lat="43.11400134894595" lon="1.594071947061117"><ele>361.0</ele><time>2026-04-02T06:19:23Z</time></trkpt><trkpt lat="43.11395795299772" lon="1.5943653285585249"><ele>361.0</ele><time>2026-04-02T06:19:24Z</time></trkpt><trkpt lat="43.11393600220739" lon="1.5946673655091483"><ele>360.66666666666663</ele><time>2026-04-02T06:19:25Z</time></trkpt><trkpt lat="43.11394463199166" lon="1.594975117835668"><ele>360.3333333333333</ele><time>2026-04-02T06:19:26Z</time></trkpt><trkpt lat="43.11394461808647" lon="1.5952738632051628"><ele>360.0</ele><time>2026-04-02T06:19:27Z</time></trkpt><trkpt lat="43.11395460721189" lon="1.59550744377239"><ele>360.0</ele><time>2026-04-02T06:19:28Z</time></trkpt><trkpt lat="43.11396748679132" lon="1.595752496922455"><ele>360.0</ele><time>2026-04-02T06:19:29Z</time></trkpt><trkpt lat="43.113985904526224" lon="1.5959370650358329"><ele>360.0</ele><time>2026-04-02T06:19:30Z</time></trkpt><trkpt lat="43.114018318151246" lon="1.596058209095252"><ele>360.0</ele><time>2026-04-02T06:19:31Z</time></trkpt><trkpt lat="43.11407236189292" lon="1.596137509035509"><ele>356.8</ele><time>2026-04-02T06:19:32Z</time></trkpt><trkpt lat="43.11416031048501" lon="1.5961552767322162"><ele>353.6</ele><time>2026-04-02T06:19:33Z</time></trkpt><trkpt lat="43.11424133499236" lon="1.5960891985586896"><ele>350.4</ele><time>2026-04-02T06:19:34Z</time></trkpt><trkpt lat="43.11427091994995" lon="1.5959749448865288"><ele>347.2</ele><time>2026-04-02T06:19:35Z</time></trkpt><trkpt lat="43.11428278919423" lon="1.5958407395581633"><ele>344.0</ele><time>2026-04-02T06:19:36Z</time></trkpt><trkpt lat="43.11427006186832" lon="1.5956703325089365"><ele>344.0</ele><time>2026-04-02T06:19:37Z</time></trkpt><trkpt lat="43.114259468388504" lon="1.5954890494725085"><ele>344.0</ele><time>2026-04-02T06:19:38Z</time></trkpt><trkpt lat="43.114274302961604" lon="1.5953718186838162"><ele>344.0</ele><time>2026-04-02T06:19:39Z</time></trkpt><trkpt lat="43.11430329995399" lon="1.595282284120875"><ele>344.0</ele><time>2026-04-02T06:19:40Z</time></trkpt><trkpt lat="43.1143804550233" lon="1.5952893860712771"><ele>344.0</ele><time>2026-04-02T06:19:41Z</time></trkpt><trkpt lat="43.114434228884605" lon="1.595398750525762"><ele>344.0</ele><time>2026-04-02T06:19:42Z</time></trkpt><trkpt lat="43.11444196404667" lon="1.595524171387014"><ele>344.0</ele><time>2026-04-02T06:19:43Z</time></trkpt><trkpt lat="43.11447426471132" lon="1.5957057134774986"><ele>344.0</ele><time>2026-04-02T06:19:44Z</time></trkpt><trkpt lat="43.114528128467924" lon="1.5959070070836072"><ele>344.0</ele><time>2026-04-02T06:19:45Z</time></trkpt><trkpt lat="43.11456336219277" lon="1.5960854164284946"><ele>341.79999999999995</ele><time>2026-04-02T06:19:46Z</time></trkpt><trkpt lat="43.114578462489135" lon="1.5962461745548515"><ele>339.59999999999997</ele><time>2026-04-02T06:19:47Z</time></trkpt><trkpt lat="43.11457129633219" lon="1.596375652363503"><ele>337.4</ele><time>2026-04-02T06:19:48Z</time></trkpt><trkpt lat="43.11452153497326" lon="1.5964588588995698"><ele>335.2</ele><time>2026-04-02T06:19:49Z</time></trkpt><trkpt lat="43.11443931379685" lon="1.5964957007879446"><ele>333.0</ele><time>2026-04-02T06:19:50Z</time></trkpt><trkpt lat="43.11432298893991" lon="1.5965581410517626"><ele>333.0</ele><time>2026-04-02T06:19:51Z</time></trkpt><trkpt lat="43.11425467798007" lon="1.5967090564794535"><ele>333.0</ele><time>2026-04-02T06:19:52Z</time></trkpt><trkpt lat="43.11420031238807" lon="1.5968996655322347"><ele>333.0</ele><time>2026-04-02T06:19:53Z</time></trkpt><trkpt lat="43.11417350895953" lon="1.5971326308385632"><ele>334.6666666666667</ele><time>2026-04-02T06:19:54Z</time></trkpt><trkpt lat="43.11415847397669" lon="1.5973634113396122"><ele>336.33333333333337</ele><time>2026-04-02T06:19:55Z</time></trkpt><trkpt lat="43.11410244813703" lon="1.5975563135339215"><ele>338.0</ele><time>2026-04-02T06:19:56Z</time></trkpt><trkpt lat="43.11400806036718" lon="1.5977041009431956"><ele>338.0</ele><time>2026-04-02T06:19:57Z</time></trkpt><trkpt lat="43.1138947047628" lon="1.597823332374828"><ele>338.0</ele><time>2026-04-02T06:19:58Z</time></trkpt><trkpt lat="43.11380182681113" lon="1.5979538811662433"><ele>338.0</ele><time>2026-04-02T06:19:59Z</time></trkpt><trkpt lat="43.113743861476024" lon="1.5981138866422742"><ele>338.0</ele><time>2026-04-02T06:20:00Z</time></trkpt><trkpt lat="43.113711217313956" lon="1.598282395378799"><ele>333.25</ele><time>2026-04-02T06:20:01Z</time></trkpt><trkpt lat="43.113731674099185" lon="1.5984503630117204"><ele>328.5</ele><time>2026-04-02T06:20:02Z</time></trkpt><trkpt lat="43.11378900254385" lon="1.5986113940374194"><ele>323.75</ele><time>2026-04-02T06:20:03Z</time></trkpt><trkpt lat="43.11376659821958" lon="1.5987608233852342"><ele>319.0</ele><time>2026-04-02T06:20:04Z</time></trkpt><trkpt lat="43.11370865162522" lon="1.5988994062984037"><ele>316.0</ele><time>2026-04-02T06:20:05Z</time></trkpt><trkpt lat="43.11361499935635" lon="1.599035836835089"><ele>313.0</ele><time>2026-04-02T06:20:06Z</time></trkpt><trkpt lat="43.1135249191596" lon="1.599182762080361"><ele>310.0</ele><time>2026-04-02T06:20:07Z</time></trkpt><trkpt lat="43.11342124935096" lon="1.5993297189553757"><ele>307.0</ele><time>2026-04-02T06:20:08Z</time></trkpt><trkpt lat="43.113303606810625" lon="1.599469274807872"><ele>312.0</ele><time>2026-04-02T06:20:09Z</time></trkpt><trkpt lat="43.113220620755115" lon="1.599627517841155"><ele>317.0</ele><time>2026-04-02T06:20:10Z</time></trkpt><trkpt lat="43.11315915156851" lon="1.599789362268121"><ele>322.0</ele><time>2026-04-02T06:20:11Z</time></trkpt><trkpt lat="43.11312549776551" lon="1.5999733864114418"><ele>327.0</ele><time>2026-04-02T06:20:12Z</time></trkpt><trkpt lat="43.11310438286699" lon="1.6001829584534843"><ele>324.0</ele><time>2026-04-02T06:20:13Z</time></trkpt><trkpt lat="43.113093933607" lon="1.6004069289444014"><ele>321.0</ele><time>2026-04-02T06:20:14Z</time></trkpt><trkpt lat="43.11309314143277" lon="1.6006019447843736"><ele>318.0</ele><time>2026-04-02T06:20:15Z</time></trkpt><trkpt lat="43.1130849364158" lon="1.6007750227528488"><ele>315.0</ele><time>2026-04-02T06:20:16Z</time></trkpt><trkpt lat="43.113049936242625" lon="1.6009235171009852"><ele>315.0</ele><time>2026-04-02T06:20:17Z</time></trkpt><trkpt lat="43.11296493985749" lon="1.6010222088789021"><ele>315.0</ele><time>2026-04-02T06:20:18Z</time></trkpt><trkpt lat="43.11285910298299" lon="1.6011250148546354"><ele>315.0</ele><time>2026-04-02T06:20:19Z</time></trkpt><trkpt lat="43.1127562813765" lon="1.6012495150811978"><ele>315.0</ele><time>2026-04-02T06:20:20Z</time></trkpt><trkpt lat="43.112679091884154" lon="1.6014020071164126"><ele>310.3333333333333</ele><time>2026-04-02T06:20:21Z</time></trkpt><trkpt lat="43.11261734311213" lon="1.6016017349990228"><ele>305.66666666666663</ele><time>2026-04-02T06:20:22Z</time></trkpt><trkpt lat="43.11258076911727" lon="1.601843494114782"><ele>301.0</ele><time>2026-04-02T06:20:23Z</time></trkpt><trkpt lat="43.112558816016474" lon="1.6020933070763352"><ele>298.0</ele><time>2026-04-02T06:20:24Z</time></trkpt><trkpt lat="43.11253893711652" lon="1.6023318748049382"><ele>295.0</ele><time>2026-04-02T06:20:25Z</time></trkpt><trkpt lat="43.112523484686314" lon="1.6025549798658747"><ele>292.0</ele><time>2026-04-02T06:20:26Z</time></trkpt><trkpt lat="43.11253597155908" lon="1.60276388037778"><ele>291.0</ele><time>2026-04-02T06:20:27Z</time></trkpt><trkpt lat="43.11257893038867" lon="1.6029589220434501"><ele>290.0</ele><time>2026-04-02T06:20:28Z</time></trkpt><trkpt lat="43.1126447149576" lon="1.6031413748734997"><ele>289.0</ele><time>2026-04-02T06:20:29Z</time></trkpt><trkpt lat="43.11271740363452" lon="1.6033243406327777"><ele>288.0</ele><time>2026-04-02T06:20:30Z</time></trkpt><trkpt lat="43.112781477414934" lon="1.6035454118378067"><ele>286.3333333333333</ele><time>2026-04-02T06:20:31Z</time></trkpt><trkpt lat="43.11285483047229" lon="1.603770771134053"><ele>284.66666666666663</ele><time>2026-04-02T06:20:32Z</time></trkpt><trkpt lat="43.112935563323134" lon="1.604016400427841"><ele>283.0</ele><time>2026-04-02T06:20:33Z</time></trkpt><trkpt lat="43.11303779099396" lon="1.6042655480495225"><ele>282.3333333333333</ele><time>2026-04-02T06:20:34Z</time></trkpt><trkpt lat="43.1131155623958" lon="1.6045144413011556"><ele>281.6666666666667</ele><time>2026-04-02T06:20:35Z</time></trkpt><trkpt lat="43.11319415897283" lon="1.6047428997676978"><ele>281.0</ele><time>2026-04-02T06:20:36Z</time></trkpt><trkpt lat="43.11326727303118" lon="1.6049472173141845"><ele>281.0</ele><time>2026-04-02T06:20:37Z</time></trkpt><trkpt lat="43.11333105504629" lon="1.6051313465976078"><ele>281.0</ele><time>2026-04-02T06:20:38Z</time></trkpt><trkpt lat="43.113383312839936" lon="1.6052937041016073"><ele>281.0</ele><time>2026-04-02T06:20:39Z</time></trkpt><trkpt lat="43.113428971117465" lon="1.6054322767521867"><ele>281.0</ele><time>2026-04-02T06:20:40Z</time></trkpt><trkpt lat="43.11346893478993" lon="1.6055480584668826"><ele>281.5</ele><time>2026-04-02T06:20:41Z</time></trkpt><trkpt lat="43.11350276014956" lon="1.6056482860110608"><ele>282.0</ele><time>2026-04-02T06:20:42Z</time></trkpt><trkpt lat="43.11353232132111" lon="1.6057319866619089"><ele>282.5</ele><time>2026-04-02T06:20:43Z</time></trkpt><trkpt lat="43.1135547815131" lon="1.6058609395704002"><ele>283.0</ele><time>2026-04-02T06:20:45Z</time></trkpt><trkpt lat="43.11358909721389" lon="1.6059661663835623"><ele>283.5</ele><time>2026-04-02T06:20:47Z</time></trkpt><trkpt lat="43.11350232699056" lon="1.606056942801746"><ele>284.0</ele><time>2026-04-02T06:20:49Z</time></trkpt><trkpt lat="43.11343089349933" lon="1.6061245990453126"><ele>284.2</ele><time>2026-04-02T06:20:50Z</time></trkpt><trkpt lat="43.11334653754107" lon="1.6062161056414248"><ele>284.4</ele><time>2026-04-02T06:20:51Z</time></trkpt><trkpt lat="43.113248456078836" lon="1.6063045580064323"><ele>284.6</ele><time>2026-04-02T06:20:52Z</time></trkpt><trkpt lat="43.113165168956336" lon="1.6063887880381404"><ele>284.8</ele><time>2026-04-02T06:20:53Z</time></trkpt><trkpt lat="43.11309322480846" lon="1.6064670942618788"><ele>285.0</ele><time>2026-04-02T06:20:54Z</time></trkpt><trkpt lat="43.11303118073483" lon="1.6065445003492604"><ele>285.0</ele><time>2026-04-02T06:20:55Z</time></trkpt><trkpt lat="43.11297475228766" lon="1.6066234971219444"><ele>285.0</ele><time>2026-04-02T06:20:56Z</time></trkpt><trkpt lat="43.112911926846856" lon="1.6066782899555234"><ele>285.0</ele><time>2026-04-02T06:20:57Z</time></trkpt><trkpt lat="43.11286557136568" lon="1.6067861784591861"><ele>285.0</ele><time>2026-04-02T06:20:58Z</time></trkpt><trkpt lat="43.11280994653584" lon="1.606891985042412"><ele>285.0</ele><time>2026-04-02T06:20:59Z</time></trkpt><trkpt lat="43.11276960133667" lon="1.6069983089589113"><ele>285.0</ele><time>2026-04-02T06:21:00Z</time></trkpt><trkpt lat="43.11273232904586" lon="1.6071095897572572"><ele>285.0</ele><time>2026-04-02T06:21:01Z</time></trkpt><trkpt lat="43.11270220919341" lon="1.6072157166057632"><ele>285.0</ele><time>2026-04-02T06:21:02Z</time></trkpt><trkpt lat="43.112676597107445" lon="1.607315127276592"><ele>285.0</ele><time>2026-04-02T06:21:03Z</time></trkpt><trkpt lat="43.112637535701616" lon="1.607413505244577"><ele>285.0</ele><time>2026-04-02T06:21:04Z</time></trkpt><trkpt lat="43.11263471594996" lon="1.6075196963610787"><ele>285.0</ele><time>2026-04-02T06:21:05Z</time></trkpt><trkpt lat="43.1126044510231" lon="1.6076253788329204"><ele>285.0</ele><time>2026-04-02T06:21:06Z</time></trkpt><trkpt lat="43.112615222381486" lon="1.6077432750805662"><ele>285.4</ele><time>2026-04-02T06:21:07Z</time></trkpt><trkpt lat="43.11259825050232" lon="1.6078861036898184"><ele>285.8</ele><time>2026-04-02T06:21:08Z</time></trkpt><trkpt lat="43.112599548314805" lon="1.6080366091647897"><ele>286.2</ele><time>2026-04-02T06:21:09Z</time></trkpt><trkpt lat="43.11259954831464" lon="1.6081851953107347"><ele>286.6</ele><time>2026-04-02T06:21:10Z</time></trkpt><trkpt lat="43.11259954831494" lon="1.6083228180994689"><ele>287.0</ele><time>2026-04-02T06:21:11Z</time></trkpt><trkpt lat="43.11259954831506" lon="1.6084534899352512"><ele>287.0</ele><time>2026-04-02T06:21:12Z</time></trkpt><trkpt lat="43.112599548315096" lon="1.6085816573695324"><ele>287.0</ele><time>2026-04-02T06:21:13Z</time></trkpt><trkpt lat="43.11259994126797" lon="1.6087022969236298"><ele>287.0</ele><time>2026-04-02T06:21:14Z</time></trkpt><trkpt lat="43.112600431148536" lon="1.6088091682557384"><ele>287.0</ele><time>2026-04-02T06:21:15Z</time></trkpt><trkpt lat="43.11260088691672" lon="1.608908597775228"><ele>287.0</ele><time>2026-04-02T06:21:16Z</time></trkpt><trkpt lat="43.112611013956595" lon="1.6089939365287624"><ele>287.0</ele><time>2026-04-02T06:21:17Z</time></trkpt><trkpt lat="43.1126148864561" lon="1.60908130254069"><ele>287.0</ele><time>2026-04-02T06:21:18Z</time></trkpt><trkpt lat="43.112616840159056" lon="1.6091809752651378"><ele>287.0</ele><time>2026-04-02T06:21:19Z</time></trkpt><trkpt lat="43.11261525659999" lon="1.6092981729774494"><ele>287.0</ele><time>2026-04-02T06:21:20Z</time></trkpt><trkpt lat="43.11261557106309" lon="1.6094155938909587"><ele>287.0</ele><time>2026-04-02T06:21:21Z</time></trkpt><trkpt lat="43.1126178671336" lon="1.6095309409861782"><ele>287.0</ele><time>2026-04-02T06:21:22Z</time></trkpt><trkpt lat="43.11260064192499" lon="1.609638458039361"><ele>287.0</ele><time>2026-04-02T06:21:23Z</time></trkpt><trkpt lat="43.11259982340925" lon="1.6097417297690895"><ele>287.0</ele><time>2026-04-02T06:21:24Z</time></trkpt><trkpt lat="43.11259904102038" lon="1.609840443478668"><ele>287.0</ele><time>2026-04-02T06:21:25Z</time></trkpt><trkpt lat="43.112598316884615" lon="1.6099318073278786"><ele>287.0</ele><time>2026-04-02T06:21:26Z</time></trkpt><trkpt lat="43.112598736808756" lon="1.6100850298692668"><ele>287.0</ele><time>2026-04-02T06:21:28Z</time></trkpt><trkpt lat="43.11261710164798" lon="1.6101916569069787"><ele>287.0</ele><time>2026-04-02T06:21:30Z</time></trkpt><trkpt lat="43.112582123550176" lon="1.6102809792670458"><ele>287.0</ele><time>2026-04-02T06:21:34Z</time></trkpt><trkpt lat="43.112517451858004" lon="1.610252101687066"><ele>287.0</ele><time>2026-04-02T06:21:35Z</time></trkpt><trkpt lat="43.11243628333531" lon="1.6103032254510607"><ele>287.0</ele><time>2026-04-02T06:21:36Z</time></trkpt><trkpt lat="43.11234916908905" lon="1.6103232630520186"><ele>287.0</ele><time>2026-04-02T06:21:37Z</time></trkpt><trkpt lat="43.112270550893115" lon="1.6103597549400313"><ele>287.0</ele><time>2026-04-02T06:21:38Z</time></trkpt><trkpt lat="43.11220236859165" lon="1.6103948818248466"><ele>287.0</ele><time>2026-04-02T06:21:39Z</time></trkpt><trkpt lat="43.112086141022665" lon="1.610443823049233"><ele>287.7142857142857</ele><time>2026-04-02T06:21:41Z</time></trkpt><trkpt lat="43.11205866418109" lon="1.6105410383532408"><ele>288.42857142857144</ele><time>2026-04-02T06:21:42Z</time></trkpt><trkpt lat="43.11202303739513" lon="1.610624437261042"><ele>289.1428571428571</ele><time>2026-04-02T06:21:43Z</time></trkpt><trkpt lat="43.11200159741044" lon="1.610716904110706"><ele>289.8571428571429</ele><time>2026-04-02T06:21:44Z</time></trkpt><trkpt lat="43.111980223760675" lon="1.6108139761130345"><ele>290.57142857142856</ele><time>2026-04-02T06:21:45Z</time></trkpt><trkpt lat="43.1119472766581" lon="1.6109056630579168"><ele>291.2857142857143</ele><time>2026-04-02T06:21:46Z</time></trkpt><trkpt lat="43.111915399082385" lon="1.6109916393628816"><ele>292.0</ele><time>2026-04-02T06:21:47Z</time></trkpt><trkpt lat="43.11188603656654" lon="1.6110782282746299"><ele>292.0</ele><time>2026-04-02T06:21:48Z</time></trkpt><trkpt lat="43.11186337906425" lon="1.611163828415472"><ele>292.0</ele><time>2026-04-02T06:21:49Z</time></trkpt><trkpt lat="43.111824237723496" lon="1.6112457341152668"><ele>292.0</ele><time>2026-04-02T06:21:50Z</time></trkpt><trkpt lat="43.11179946598776" lon="1.611333237648713"><ele>292.0</ele><time>2026-04-02T06:21:51Z</time></trkpt><trkpt lat="43.111774154168714" lon="1.6114226489837153"><ele>292.0</ele><time>2026-04-02T06:21:52Z</time></trkpt><trkpt lat="43.11175822290136" lon="1.6115307416231572"><ele>292.0</ele><time>2026-04-02T06:21:53Z</time></trkpt><trkpt lat="43.11172503622487" lon="1.6116280642973326"><ele>292.0</ele><time>2026-04-02T06:21:54Z</time></trkpt><trkpt lat="43.11168999712417" lon="1.6117350497086798"><ele>292.0</ele><time>2026-04-02T06:21:56Z</time></trkpt><trkpt lat="43.11165987979666" lon="1.6118313513891747"><ele>292.0</ele><time>2026-04-02T06:21:59Z</time></trkpt><trkpt lat="43.11159763985864" lon="1.6119415521990372"><ele>292.0</ele><time>2026-04-02T06:22:01Z</time></trkpt><trkpt lat="43.111541566119094" lon="1.6120707921807467"><ele>292.0</ele><time>2026-04-02T06:22:03Z</time></trkpt><trkpt lat="43.111479073114715" lon="1.6122056443266328"><ele>292.0</ele><time>2026-04-02T06:22:05Z</time></trkpt><trkpt lat="43.111424676665365" lon="1.6123201137505556"><ele>291.8</ele><time>2026-04-02T06:22:07Z</time></trkpt><trkpt lat="43.11137753731299" lon="1.6124193124332864"><ele>291.6</ele><time>2026-04-02T06:22:09Z</time></trkpt><trkpt lat="43.11131772760499" lon="1.612547727090719"><ele>291.40000000000003</ele><time>2026-04-02T06:22:11Z</time></trkpt><trkpt lat="43.11125772957" lon="1.612676322466325"><ele>291.2</ele><time>2026-04-02T06:22:13Z</time></trkpt><trkpt lat="43.111204882114414" lon="1.6127949876699652"><ele>291.0</ele><time>2026-04-02T06:22:15Z</time></trkpt><trkpt lat="43.111153151822364" lon="1.612923118719825"><ele>291.0</ele><time>2026-04-02T06:22:17Z</time></trkpt><trkpt lat="43.11111776910022" lon="1.6130602935065677"><ele>291.0</ele><time>2026-04-02T06:22:19Z</time></trkpt><trkpt lat="43.111076598291525" lon="1.6131950458084883"><ele>291.0</ele><time>2026-04-02T06:22:21Z</time></trkpt><trkpt lat="43.11111175208145" lon="1.6133264130037464"><ele>291.0</ele><time>2026-04-02T06:22:23Z</time></trkpt><trkpt lat="43.11118618110174" lon="1.6134007989833883"><ele>291.0</ele><time>2026-04-02T06:22:25Z</time></trkpt><trkpt lat="43.11121373229655" lon="1.6134982959077506"><ele>291.0</ele><time>2026-04-02T06:22:27Z</time></trkpt><trkpt lat="43.111255759165886" lon="1.613605438348521"><ele>291.0</ele><time>2026-04-02T06:22:30Z</time></trkpt><trkpt lat="43.11130396436127" lon="1.6136659415496946"><ele>291.0</ele><time>2026-04-02T06:23:56Z</time></trkpt><trkpt lat="43.111162477876974" lon="1.6138043559495516"><ele>291.0</ele><time>2026-04-02T06:24:03Z</time></trkpt><trkpt lat="43.111200704895104" lon="1.6137327124316554"><ele>291.0</ele><time>2026-04-02T06:24:06Z</time></trkpt><trkpt lat="43.11121027252042" lon="1.613605965508917"><ele>291.0</ele><time>2026-04-02T06:24:47Z</time></trkpt><trkpt lat="43.1111817915042" lon="1.6137026926721147"><ele>291.0</ele><time>2026-04-02T06:24:51Z</time></trkpt><trkpt lat="43.111176023504484" lon="1.6138057298952373"><ele>291.0</ele><time>2026-04-02T06:25:52Z</time></trkpt><trkpt lat="43.11118985127721" lon="1.6137196119490014"><ele>291.0</ele><time>2026-04-02T06:25:55Z</time></trkpt><trkpt lat="43.11112207200564" lon="1.6137082905198683"><ele>291.0</ele><time>2026-04-02T06:26:41Z</time></trkpt><trkpt lat="43.111182031260846" lon="1.613662654765281"><ele>291.0</ele><time>2026-04-02T06:26:45Z</time></trkpt><trkpt lat="43.11125457650778" lon="1.6136917084298132"><ele>291.0</ele><time>2026-04-02T06:28:13Z</time></trkpt><trkpt lat="43.11122898419494" lon="1.6136116383281616"><ele>291.0</ele><time>2026-04-02T06:40:23Z</time></trkpt><trkpt lat="43.11129314251717" lon="1.613566331010942"><ele>291.0</ele><time>2026-04-02T06:40:29Z</time></trkpt><trkpt lat="43.111322093089925" lon="1.6136484662337327"><ele>291.0</ele><time>2026-04-02T06:41:46Z</time></trkpt><trkpt lat="43.11125713120132" lon="1.613581987353879"><ele>291.0</ele><time>2026-04-02T06:41:49Z</time></trkpt><trkpt lat="43.111261524697994" lon="1.6134813823052618"><ele>291.0</ele><time>2026-04-02T06:41:51Z</time></trkpt><trkpt lat="43.111224673889964" lon="1.6134105878024059"><ele>291.0</ele><time>2026-04-02T06:41:54Z</time></trkpt><trkpt lat="43.11118315818548" lon="1.6133060400549797"><ele>291.0</ele><time>2026-04-02T06:42:58Z</time></trkpt><trkpt lat="43.11114055179113" lon="1.6132078081660086"><ele>291.0</ele><time>2026-04-02T06:43:00Z</time></trkpt><trkpt lat="43.111070510904455" lon="1.6132013695996796"><ele>291.0</ele><time>2026-04-02T06:43:02Z</time></trkpt><trkpt lat="43.11097149628341" lon="1.6133083371246113"><ele>291.0</ele><time>2026-04-02T06:43:05Z</time></trkpt><trkpt lat="43.11086826019302" lon="1.6134328600907477"><ele>291.0</ele><time>2026-04-02T06:43:07Z</time></trkpt><trkpt lat="43.11082225278477" lon="1.6135285563510986"><ele>291.0</ele><time>2026-04-02T06:43:08Z</time></trkpt><trkpt lat="43.110778467002326" lon="1.6136328093892047"><ele>291.8</ele><time>2026-04-02T06:43:09Z</time></trkpt><trkpt lat="43.11073917696531" lon="1.6137389025158126"><ele>292.6</ele><time>2026-04-02T06:43:10Z</time></trkpt><trkpt lat="43.11069424212853" lon="1.6138489761293402"><ele>293.4</ele><time>2026-04-02T06:43:11Z</time></trkpt><trkpt lat="43.11064724565113" lon="1.613961230360712"><ele>294.2</ele><time>2026-04-02T06:43:12Z</time></trkpt><trkpt lat="43.11059585337864" lon="1.6140799927032177"><ele>295.0</ele><time>2026-04-02T06:43:13Z</time></trkpt><trkpt lat="43.110538652590996" lon="1.614209490082923"><ele>295.0</ele><time>2026-04-02T06:43:14Z</time></trkpt><trkpt lat="43.110483658514" lon="1.6143253969399078"><ele>295.0</ele><time>2026-04-02T06:43:15Z</time></trkpt><trkpt lat="43.110428122496245" lon="1.614440583291364"><ele>295.0</ele><time>2026-04-02T06:43:16Z</time></trkpt><trkpt lat="43.11036290198467" lon="1.6145705812506617"><ele>295.0</ele><time>2026-04-02T06:43:17Z</time></trkpt><trkpt lat="43.11030230147402" lon="1.6146800663454295"><ele>295.0</ele><time>2026-04-02T06:43:18Z</time></trkpt><trkpt lat="43.11024211346452" lon="1.614793510930379"><ele>296.25</ele><time>2026-04-02T06:43:19Z</time></trkpt><trkpt lat="43.11018111138533" lon="1.6149268895914024"><ele>297.5</ele><time>2026-04-02T06:43:20Z</time></trkpt><trkpt lat="43.110125218169784" lon="1.6150689034419428"><ele>298.75</ele><time>2026-04-02T06:43:21Z</time></trkpt><trkpt lat="43.11006762695665" lon="1.6152064551680736"><ele>300.0</ele><time>2026-04-02T06:43:22Z</time></trkpt><trkpt lat="43.10998598704302" lon="1.6153125743279564"><ele>300.8</ele><time>2026-04-02T06:43:23Z</time></trkpt><trkpt lat="43.10992024873879" lon="1.6154478054816912"><ele>301.6</ele><time>2026-04-02T06:43:24Z</time></trkpt><trkpt lat="43.109864435104775" lon="1.6155633177832378"><ele>302.4</ele><time>2026-04-02T06:43:25Z</time></trkpt><trkpt lat="43.109815625277335" lon="1.61566249028582"><ele>303.2</ele><time>2026-04-02T06:43:26Z</time></trkpt><trkpt lat="43.10976900134599" lon="1.615758520231471"><ele>304.0</ele><time>2026-04-02T06:43:27Z</time></trkpt><trkpt lat="43.10972388323702" lon="1.6158557235854902"><ele>304.0</ele><time>2026-04-02T06:43:28Z</time></trkpt><trkpt lat="43.109681488239644" lon="1.6159455614889933"><ele>304.0</ele><time>2026-04-02T06:43:29Z</time></trkpt><trkpt lat="43.10964499639111" lon="1.616020253216923"><ele>304.0</ele><time>2026-04-02T06:43:30Z</time></trkpt><trkpt lat="43.109607655503744" lon="1.6160927180897011"><ele>304.0</ele><time>2026-04-02T06:43:31Z</time></trkpt><trkpt lat="43.109529789475175" lon="1.616231520728139"><ele>304.0</ele><time>2026-04-02T06:43:33Z</time></trkpt><trkpt lat="43.10947865984307" lon="1.616311860560356"><ele>304.0</ele><time>2026-04-02T06:43:34Z</time></trkpt><trkpt lat="43.10942769235398" lon="1.616388458872911"><ele>304.0</ele><time>2026-04-02T06:43:35Z</time></trkpt><trkpt lat="43.109376150690146" lon="1.6164621493063251"><ele>304.0</ele><time>2026-04-02T06:43:36Z</time></trkpt><trkpt lat="43.109321931476366" lon="1.616535169293513"><ele>304.0</ele><time>2026-04-02T06:43:37Z</time></trkpt><trkpt lat="43.10926429860085" lon="1.616608259224856"><ele>304.0</ele><time>2026-04-02T06:43:38Z</time></trkpt><trkpt lat="43.10920287620706" lon="1.6166817318608966"><ele>304.0</ele><time>2026-04-02T06:43:39Z</time></trkpt><trkpt lat="43.10913722453837" lon="1.6167514526471372"><ele>304.0</ele><time>2026-04-02T06:43:40Z</time></trkpt><trkpt lat="43.109070981104274" lon="1.6168185341281285"><ele>304.0</ele><time>2026-04-02T06:43:41Z</time></trkpt><trkpt lat="43.10900397953955" lon="1.616882034219601"><ele>304.0</ele><time>2026-04-02T06:43:42Z</time></trkpt><trkpt lat="43.10893641190251" lon="1.6169375918931523"><ele>304.0</ele><time>2026-04-02T06:43:43Z</time></trkpt><trkpt lat="43.10886368929059" lon="1.616993414143272"><ele>304.0</ele><time>2026-04-02T06:43:44Z</time></trkpt><trkpt lat="43.108793069520445" lon="1.6170457339208935"><ele>304.0</ele><time>2026-04-02T06:43:45Z</time></trkpt><trkpt lat="43.108721766486994" lon="1.6170977855778355"><ele>304.0</ele><time>2026-04-02T06:43:46Z</time></trkpt><trkpt lat="43.1086465591737" lon="1.617152573167006"><ele>304.0</ele><time>2026-04-02T06:43:47Z</time></trkpt><trkpt lat="43.10856966033954" lon="1.6172082852561878"><ele>304.0</ele><time>2026-04-02T06:43:48Z</time></trkpt><trkpt lat="43.108495436606475" lon="1.6172576855091603"><ele>304.0</ele><time>2026-04-02T06:43:49Z</time></trkpt><trkpt lat="43.10842505540479" lon="1.6173061108836302"><ele>304.0</ele><time>2026-04-02T06:43:50Z</time></trkpt><trkpt lat="43.10835884728236" lon="1.6173533978289192"><ele>304.0</ele><time>2026-04-02T06:43:51Z</time></trkpt><trkpt lat="43.10830303836717" lon="1.617394324410417"><ele>304.0</ele><time>2026-04-02T06:43:52Z</time></trkpt><trkpt lat="43.10821401799617" lon="1.6174596064582"><ele>304.0</ele><time>2026-04-02T06:43:54Z</time></trkpt><trkpt lat="43.10811975712351" lon="1.6175544931725765"><ele>304.0</ele><time>2026-04-02T06:43:56Z</time></trkpt><trkpt lat="43.10805569069636" lon="1.617597877351754"><ele>304.0</ele><time>2026-04-02T06:43:57Z</time></trkpt><trkpt lat="43.10799137219354" lon="1.6176412853185456"><ele>304.0</ele><time>2026-04-02T06:43:58Z</time></trkpt><trkpt lat="43.10792538286542" lon="1.6176880423868738"><ele>304.0</ele><time>2026-04-02T06:43:59Z</time></trkpt><trkpt lat="43.107851337456836" lon="1.617737348960171"><ele>304.0</ele><time>2026-04-02T06:44:00Z</time></trkpt><trkpt lat="43.10777846702662" lon="1.6177843020760023"><ele>304.16666666666663</ele><time>2026-04-02T06:44:01Z</time></trkpt><trkpt lat="43.10770352654109" lon="1.6178296869462505"><ele>304.3333333333333</ele><time>2026-04-02T06:44:02Z</time></trkpt><trkpt lat="43.107625398883" lon="1.6178782766031299"><ele>304.5</ele><time>2026-04-02T06:44:03Z</time></trkpt><trkpt lat="43.107547702883316" lon="1.6179289719125536"><ele>304.6666666666667</ele><time>2026-04-02T06:44:04Z</time></trkpt><trkpt lat="43.10746477025324" lon="1.617987029793172"><ele>304.83333333333337</ele><time>2026-04-02T06:44:05Z</time></trkpt><trkpt lat="43.10738261918465" lon="1.6180472268758854"><ele>305.0</ele><time>2026-04-02T06:44:06Z</time></trkpt><trkpt lat="43.10730051711662" lon="1.618114478221915"><ele>305.0</ele><time>2026-04-02T06:44:07Z</time></trkpt><trkpt lat="43.10720879843684" lon="1.6181554848738098"><ele>305.0</ele><time>2026-04-02T06:44:08Z</time></trkpt><trkpt lat="43.10712544774589" lon="1.6182164556824445"><ele>305.0</ele><time>2026-04-02T06:44:09Z</time></trkpt><trkpt lat="43.10703297045393" lon="1.6182990961878367"><ele>305.0</ele><time>2026-04-02T06:44:10Z</time></trkpt><trkpt lat="43.10695159930134" lon="1.6183602787013636"><ele>305.0</ele><time>2026-04-02T06:44:11Z</time></trkpt><trkpt lat="43.10687685948097" lon="1.618415726658102"><ele>305.0</ele><time>2026-04-02T06:44:12Z</time></trkpt><trkpt lat="43.10680215179469" lon="1.6184665767062312"><ele>305.0</ele><time>2026-04-02T06:44:13Z</time></trkpt><trkpt lat="43.106731091168825" lon="1.6185163186752902"><ele>305.0</ele><time>2026-04-02T06:44:14Z</time></trkpt><trkpt lat="43.106657275287326" lon="1.618568863827602"><ele>305.0</ele><time>2026-04-02T06:44:15Z</time></trkpt><trkpt lat="43.106587802664336" lon="1.6186227762148624"><ele>305.0</ele><time>2026-04-02T06:44:16Z</time></trkpt><trkpt lat="43.106509562476965" lon="1.6186784281341136"><ele>305.0</ele><time>2026-04-02T06:44:17Z</time></trkpt><trkpt lat="43.10644422168566" lon="1.6187321260768028"><ele>305.1666666666667</ele><time>2026-04-02T06:44:18Z</time></trkpt><trkpt lat="43.10637983747664" lon="1.6187727743009293"><ele>305.33333333333337</ele><time>2026-04-02T06:44:19Z</time></trkpt><trkpt lat="43.10631231983628" lon="1.6188180101870286"><ele>305.5</ele><time>2026-04-02T06:44:20Z</time></trkpt><trkpt lat="43.106254293573215" lon="1.618854960283063"><ele>305.6666666666667</ele><time>2026-04-02T06:44:21Z</time></trkpt><trkpt lat="43.10616438895661" lon="1.6189181562604245"><ele>305.8333333333333</ele><time>2026-04-02T06:44:23Z</time></trkpt><trkpt lat="43.10607529245155" lon="1.6189746023243272"><ele>306.0</ele><time>2026-04-02T06:44:25Z</time></trkpt><trkpt lat="43.105972438926464" lon="1.619040033858274"><ele>306.0</ele><time>2026-04-02T06:44:27Z</time></trkpt><trkpt lat="43.105915717432566" lon="1.6190794143560243"><ele>306.0</ele><time>2026-04-02T06:44:28Z</time></trkpt><trkpt lat="43.105861954811665" lon="1.61912504348224"><ele>306.0</ele><time>2026-04-02T06:44:29Z</time></trkpt><trkpt lat="43.10580577808292" lon="1.6191679424688563"><ele>306.0</ele><time>2026-04-02T06:44:30Z</time></trkpt><trkpt lat="43.10570888904577" lon="1.619238071805969"><ele>306.0</ele><time>2026-04-02T06:44:32Z</time></trkpt><trkpt lat="43.10561313732026" lon="1.61930523794218"><ele>306.0</ele><time>2026-04-02T06:44:34Z</time></trkpt><trkpt lat="43.10551287763545" lon="1.619373974332433"><ele>306.1666666666667</ele><time>2026-04-02T06:44:36Z</time></trkpt><trkpt lat="43.105434524274585" lon="1.6194374234433673"><ele>306.3333333333333</ele><time>2026-04-02T06:44:38Z</time></trkpt><trkpt lat="43.10536643845062" lon="1.6194896632786167"><ele>306.5</ele><time>2026-04-02T06:44:40Z</time></trkpt><trkpt lat="43.105308777822145" lon="1.6195316475893675"><ele>306.66666666666663</ele><time>2026-04-02T06:44:42Z</time></trkpt><trkpt lat="43.10525136809751" lon="1.6195673839497053"><ele>306.8333333333333</ele><time>2026-04-02T06:44:52Z</time></trkpt><trkpt lat="43.10519332625764" lon="1.619613782638747"><ele>307.0</ele><time>2026-04-02T06:44:53Z</time></trkpt><trkpt lat="43.105117075275196" lon="1.6196726804037456"><ele>307.0</ele><time>2026-04-02T06:44:54Z</time></trkpt><trkpt lat="43.10502030993633" lon="1.6197395655570797"><ele>307.0</ele><time>2026-04-02T06:44:56Z</time></trkpt><trkpt lat="43.10493079107428" lon="1.619797058418363"><ele>307.0</ele><time>2026-04-02T06:44:59Z</time></trkpt><trkpt lat="43.104864451137075" lon="1.6198456689071794"><ele>307.0</ele><time>2026-04-02T06:45:01Z</time></trkpt><trkpt lat="43.104791052577" lon="1.6199030314511962"><ele>307.0</ele><time>2026-04-02T06:45:03Z</time></trkpt><trkpt lat="43.10470853346296" lon="1.6200329626694578"><ele>307.3333333333333</ele><time>2026-04-02T06:45:05Z</time></trkpt><trkpt lat="43.104708991798425" lon="1.6201313259111867"><ele>307.66666666666663</ele><time>2026-04-02T06:45:06Z</time></trkpt><trkpt lat="43.10474285594044" lon="1.6202275887252888"><ele>308.0</ele><time>2026-04-02T06:45:07Z</time></trkpt><trkpt lat="43.104814888186986" lon="1.6202852045998708"><ele>308.3333333333333</ele><time>2026-04-02T06:45:08Z</time></trkpt><trkpt lat="43.10487795292337" lon="1.6203343600822728"><ele>308.6666666666667</ele><time>2026-04-02T06:45:09Z</time></trkpt><trkpt lat="43.104846337977314" lon="1.6204774289537387"><ele>309.0</ele><time>2026-04-02T06:45:10Z</time></trkpt><trkpt lat="43.10481532467975" lon="1.620574379294764"><ele>309.0</ele><time>2026-04-02T06:45:11Z</time></trkpt><trkpt lat="43.10477712205524" lon="1.620700014916629"><ele>309.0</ele><time>2026-04-02T06:45:12Z</time></trkpt><trkpt lat="43.10474404316645" lon="1.6208392949065267"><ele>309.0</ele><time>2026-04-02T06:45:13Z</time></trkpt><trkpt lat="43.104714428961685" lon="1.6209785939964323"><ele>309.0</ele><time>2026-04-02T06:45:14Z</time></trkpt><trkpt lat="43.10468872423785" lon="1.6211039250986023"><ele>309.0</ele><time>2026-04-02T06:45:15Z</time></trkpt><trkpt lat="43.10466113666811" lon="1.6212372846929897"><ele>308.8</ele><time>2026-04-02T06:45:16Z</time></trkpt><trkpt lat="43.10462939836164" lon="1.6213746080443656"><ele>308.59999999999997</ele><time>2026-04-02T06:45:17Z</time></trkpt><trkpt lat="43.10459970051745" lon="1.6215138259082456"><ele>308.4</ele><time>2026-04-02T06:45:18Z</time></trkpt><trkpt lat="43.10457395079149" lon="1.6216513731383484"><ele>308.2</ele><time>2026-04-02T06:45:19Z</time></trkpt><trkpt lat="43.10454776191506" lon="1.6217882967696184"><ele>308.0</ele><time>2026-04-02T06:45:20Z</time></trkpt><trkpt lat="43.10452514527973" lon="1.6219232462116808"><ele>308.4</ele><time>2026-04-02T06:45:21Z</time></trkpt><trkpt lat="43.10450106595466" lon="1.622046887872964"><ele>308.8</ele><time>2026-04-02T06:45:22Z</time></trkpt><trkpt lat="43.104471953097764" lon="1.622173003334753"><ele>309.2</ele><time>2026-04-02T06:45:23Z</time></trkpt><trkpt lat="43.1044403013729" lon="1.6222963575667793"><ele>309.6</ele><time>2026-04-02T06:45:24Z</time></trkpt><trkpt lat="43.10440976451037" lon="1.62241860727547"><ele>310.0</ele><time>2026-04-02T06:45:25Z</time></trkpt><trkpt lat="43.104384300553455" lon="1.6225417145776133"><ele>310.0</ele><time>2026-04-02T06:45:26Z</time></trkpt><trkpt lat="43.10436009639361" lon="1.6226757542620265"><ele>310.0</ele><time>2026-04-02T06:45:27Z</time></trkpt><trkpt lat="43.10433537018713" lon="1.622806197450599"><ele>310.0</ele><time>2026-04-02T06:45:28Z</time></trkpt><trkpt lat="43.10431068003373" lon="1.6229297970365886"><ele>310.0</ele><time>2026-04-02T06:45:29Z</time></trkpt><trkpt lat="43.10428775374569" lon="1.6230577388253158"><ele>310.0</ele><time>2026-04-02T06:45:30Z</time></trkpt><trkpt lat="43.104267444194434" lon="1.6231849563243437"><ele>309.5</ele><time>2026-04-02T06:45:31Z</time></trkpt><trkpt lat="43.10424430799503" lon="1.6233079947581148"><ele>309.0</ele><time>2026-04-02T06:45:32Z</time></trkpt><trkpt lat="43.10421906945536" lon="1.6234255152428705"><ele>308.5</ele><time>2026-04-02T06:45:33Z</time></trkpt><trkpt lat="43.104195217453764" lon="1.6235377653859806"><ele>308.0</ele><time>2026-04-02T06:45:34Z</time></trkpt><trkpt lat="43.10417302154073" lon="1.623650847570494"><ele>307.5</ele><time>2026-04-02T06:45:35Z</time></trkpt><trkpt lat="43.10415235008697" lon="1.6237513411351046"><ele>307.0</ele><time>2026-04-02T06:45:36Z</time></trkpt><trkpt lat="43.10413061119447" lon="1.6238415809315692"><ele>307.0</ele><time>2026-04-02T06:45:37Z</time></trkpt><trkpt lat="43.10409169415848" lon="1.6239693854541222"><ele>307.0</ele><time>2026-04-02T06:45:39Z</time></trkpt><trkpt lat="43.104059130753825" lon="1.6240500117409005"><ele>307.0</ele><time>2026-04-02T06:45:42Z</time></trkpt><trkpt lat="43.104032813535056" lon="1.6241473346648783"><ele>307.0</ele><time>2026-04-02T06:46:55Z</time></trkpt><trkpt lat="43.10401284948388" lon="1.6242346361741646"><ele>307.0</ele><time>2026-04-02T06:46:56Z</time></trkpt><trkpt lat="43.10398983201945" lon="1.6243474766116321"><ele>307.0</ele><time>2026-04-02T06:46:57Z</time></trkpt><trkpt lat="43.103962081620054" lon="1.6244808658775851"><ele>307.0</ele><time>2026-04-02T06:46:58Z</time></trkpt><trkpt lat="43.1039280045681" lon="1.6246406702933833"><ele>307.0</ele><time>2026-04-02T06:46:59Z</time></trkpt><trkpt lat="43.103892520648145" lon="1.6248076811728418"><ele>307.0</ele><time>2026-04-02T06:47:00Z</time></trkpt><trkpt lat="43.10385862511355" lon="1.6249831770833054"><ele>307.0</ele><time>2026-04-02T06:47:01Z</time></trkpt><trkpt lat="43.103825596057064" lon="1.6251592662668541"><ele>307.66666666666663</ele><time>2026-04-02T06:47:02Z</time></trkpt><trkpt lat="43.1037926558623" lon="1.6253512606423484"><ele>308.3333333333333</ele><time>2026-04-02T06:47:03Z</time></trkpt><trkpt lat="43.10375386707661" lon="1.6255704587696866"><ele>309.0</ele><time>2026-04-02T06:47:04Z</time></trkpt><trkpt lat="43.10371115432802" lon="1.6257773506358462"><ele>309.0</ele><time>2026-04-02T06:47:05Z</time></trkpt><trkpt lat="43.10367105786605" lon="1.6259677595887079"><ele>309.0</ele><time>2026-04-02T06:47:06Z</time></trkpt><trkpt lat="43.103628643444495" lon="1.6261630720849078"><ele>309.0</ele><time>2026-04-02T06:47:07Z</time></trkpt><trkpt lat="43.103588121282556" lon="1.626359046375408"><ele>309.0</ele><time>2026-04-02T06:47:08Z</time></trkpt><trkpt lat="43.10354447540967" lon="1.6265537133655437"><ele>308.6666666666667</ele><time>2026-04-02T06:47:09Z</time></trkpt><trkpt lat="43.1034998232421" lon="1.6267509410933882"><ele>308.33333333333337</ele><time>2026-04-02T06:47:10Z</time></trkpt><trkpt lat="43.10345887665288" lon="1.6269480124674796"><ele>308.0</ele><time>2026-04-02T06:47:11Z</time></trkpt><trkpt lat="43.10341722104037" lon="1.6271462770219611"><ele>307.75</ele><time>2026-04-02T06:47:12Z</time></trkpt><trkpt lat="43.10337428910133" lon="1.627338034606723"><ele>307.5</ele><time>2026-04-02T06:47:13Z</time></trkpt><trkpt lat="43.103325569695464" lon="1.6275259310234258"><ele>307.25</ele><time>2026-04-02T06:47:14Z</time></trkpt><trkpt lat="43.10327630794239" lon="1.6277101782170804"><ele>307.0</ele><time>2026-04-02T06:47:15Z</time></trkpt><trkpt lat="43.10323465663417" lon="1.6278962878921936"><ele>307.5</ele><time>2026-04-02T06:47:16Z</time></trkpt><trkpt lat="43.10320325006019" lon="1.628086620845499"><ele>308.0</ele><time>2026-04-02T06:47:17Z</time></trkpt><trkpt lat="43.10317237469347" lon="1.6282741294398753"><ele>308.5</ele><time>2026-04-02T06:47:18Z</time></trkpt><trkpt lat="43.10314273309384" lon="1.6284452706117598"><ele>309.0</ele><time>2026-04-02T06:47:19Z</time></trkpt><trkpt lat="43.10310848499221" lon="1.6286004544436596"><ele>308.8</ele><time>2026-04-02T06:47:20Z</time></trkpt><trkpt lat="43.10307837816741" lon="1.6287358252845214"><ele>308.59999999999997</ele><time>2026-04-02T06:47:21Z</time></trkpt><trkpt lat="43.10304639909764" lon="1.6288432154705763"><ele>308.4</ele><time>2026-04-02T06:47:22Z</time></trkpt><trkpt lat="43.1030079283212" lon="1.6289412221993507"><ele>308.2</ele><time>2026-04-02T06:47:23Z</time></trkpt><trkpt lat="43.10294432713697" lon="1.6290443064213866"><ele>308.0</ele><time>2026-04-02T06:47:24Z</time></trkpt><trkpt lat="43.10286491047408" lon="1.629141957855233"><ele>308.0</ele><time>2026-04-02T06:47:25Z</time></trkpt><trkpt lat="43.10279383793277" lon="1.6292269826308574"><ele>308.0</ele><time>2026-04-02T06:47:26Z</time></trkpt><trkpt lat="43.10276255031676" lon="1.629332757033246"><ele>308.0</ele><time>2026-04-02T06:47:27Z</time></trkpt><trkpt lat="43.102768544105125" lon="1.6294507875981965"><ele>308.0</ele><time>2026-04-02T06:47:28Z</time></trkpt><trkpt lat="43.10279959342134" lon="1.6295721287204366"><ele>308.0</ele><time>2026-04-02T06:47:29Z</time></trkpt><trkpt lat="43.10286920303294" lon="1.6296616384338503"><ele>307.75</ele><time>2026-04-02T06:47:30Z</time></trkpt><trkpt lat="43.10284875746632" lon="1.6298475559630752"><ele>307.5</ele><time>2026-04-02T06:47:31Z</time></trkpt><trkpt lat="43.10282183910004" lon="1.6300040633481128"><ele>307.25</ele><time>2026-04-02T06:47:32Z</time></trkpt><trkpt lat="43.10277394280263" lon="1.630177467457804"><ele>307.0</ele><time>2026-04-02T06:47:33Z</time></trkpt><trkpt lat="43.1027247439372" lon="1.6303855298512013"><ele>308.66666666666663</ele><time>2026-04-02T06:47:34Z</time></trkpt><trkpt lat="43.102674589773194" lon="1.6306260518790303"><ele>310.3333333333333</ele><time>2026-04-02T06:47:35Z</time></trkpt><trkpt lat="43.102628182982926" lon="1.6308532266796039"><ele>312.0</ele><time>2026-04-02T06:47:36Z</time></trkpt><trkpt lat="43.10258015958662" lon="1.6310693744783038"><ele>311.6666666666667</ele><time>2026-04-02T06:47:37Z</time></trkpt><trkpt lat="43.102532931734956" lon="1.6312893893591607"><ele>311.33333333333337</ele><time>2026-04-02T06:47:38Z</time></trkpt><trkpt lat="43.102486703240146" lon="1.6315128118183935"><ele>311.0</ele><time>2026-04-02T06:47:39Z</time></trkpt><trkpt lat="43.102438457843796" lon="1.6317417475957654"><ele>311.0</ele><time>2026-04-02T06:47:40Z</time></trkpt><trkpt lat="43.10238797941705" lon="1.6319726911484698"><ele>311.0</ele><time>2026-04-02T06:47:41Z</time></trkpt><trkpt lat="43.102337789383334" lon="1.6322119000154447"><ele>311.0</ele><time>2026-04-02T06:47:42Z</time></trkpt><trkpt lat="43.102286895322024" lon="1.6324493809449139"><ele>310.33333333333337</ele><time>2026-04-02T06:47:43Z</time></trkpt><trkpt lat="43.102236386710985" lon="1.632691750022553"><ele>309.6666666666667</ele><time>2026-04-02T06:47:44Z</time></trkpt><trkpt lat="43.10218759399353" lon="1.6329305035983046"><ele>309.0</ele><time>2026-04-02T06:47:45Z</time></trkpt><trkpt lat="43.102137838049266" lon="1.6331654378291403"><ele>309.0</ele><time>2026-04-02T06:47:46Z</time></trkpt><trkpt lat="43.10209008361555" lon="1.6333955363388772"><ele>309.0</ele><time>2026-04-02T06:47:47Z</time></trkpt><trkpt lat="43.102044761596055" lon="1.6336218166999272"><ele>309.0</ele><time>2026-04-02T06:47:48Z</time></trkpt><trkpt lat="43.10198703678722" lon="1.6338862207246954"><ele>308.6666666666667</ele><time>2026-04-02T06:47:49Z</time></trkpt><trkpt lat="43.10193768832616" lon="1.63412391555201"><ele>308.33333333333337</ele><time>2026-04-02T06:47:50Z</time></trkpt><trkpt lat="43.10188662755434" lon="1.634359321951966"><ele>308.0</ele><time>2026-04-02T06:47:51Z</time></trkpt><trkpt lat="43.10183692120517" lon="1.634591227420431"><ele>308.0</ele><time>2026-04-02T06:47:52Z</time></trkpt><trkpt lat="43.10178719613745" lon="1.6348275405107457"><ele>308.0</ele><time>2026-04-02T06:47:53Z</time></trkpt><trkpt lat="43.10173647931614" lon="1.6350622138071846"><ele>308.0</ele><time>2026-04-02T06:47:54Z</time></trkpt><trkpt lat="43.10168911510984" lon="1.635280620809079"><ele>307.6666666666667</ele><time>2026-04-02T06:47:55Z</time></trkpt><trkpt lat="43.10164912239324" lon="1.6354895504224347"><ele>307.3333333333333</ele><time>2026-04-02T06:47:56Z</time></trkpt><trkpt lat="43.101609360431176" lon="1.6356918158006328"><ele>307.0</ele><time>2026-04-02T06:47:57Z</time></trkpt><trkpt lat="43.101564661036015" lon="1.6358824824511993"><ele>307.66666666666663</ele><time>2026-04-02T06:47:58Z</time></trkpt><trkpt lat="43.10151650332633" lon="1.6360739610501542"><ele>308.3333333333333</ele><time>2026-04-02T06:47:59Z</time></trkpt><trkpt lat="43.10146146199958" lon="1.636286750489921"><ele>309.0</ele><time>2026-04-02T06:48:00Z</time></trkpt><trkpt lat="43.101398061076985" lon="1.6365136407533358"><ele>309.0</ele><time>2026-04-02T06:48:01Z</time></trkpt><trkpt lat="43.10137937108561" lon="1.6367510962269236"><ele>309.0</ele><time>2026-04-02T06:48:02Z</time></trkpt><trkpt lat="43.10131881118968" lon="1.6370086770809047"><ele>309.0</ele><time>2026-04-02T06:48:03Z</time></trkpt><trkpt lat="43.101258139965964" lon="1.6372859343707107"><ele>309.3333333333333</ele><time>2026-04-02T06:48:04Z</time></trkpt><trkpt lat="43.10119914742497" lon="1.6375687111494408"><ele>309.66666666666663</ele><time>2026-04-02T06:48:05Z</time></trkpt><trkpt lat="43.10114276151579" lon="1.6378514287843546"><ele>310.0</ele><time>2026-04-02T06:48:06Z</time></trkpt><trkpt lat="43.101086645485985" lon="1.6381337399175075"><ele>310.3333333333333</ele><time>2026-04-02T06:48:07Z</time></trkpt><trkpt lat="43.10102935609017" lon="1.6384153382319984"><ele>310.6666666666667</ele><time>2026-04-02T06:48:08Z</time></trkpt><trkpt lat="43.10097760529905" lon="1.6386974110890369"><ele>311.0</ele><time>2026-04-02T06:48:09Z</time></trkpt><trkpt lat="43.10091969274324" lon="1.6389857184484777"><ele>310.6666666666667</ele><time>2026-04-02T06:48:10Z</time></trkpt><trkpt lat="43.10085755305431" lon="1.6392800220309538"><ele>310.3333333333333</ele><time>2026-04-02T06:48:11Z</time></trkpt><trkpt lat="43.10079305758436" lon="1.6395749996908155"><ele>310.0</ele><time>2026-04-02T06:48:12Z</time></trkpt><trkpt lat="43.10073023187781" lon="1.6398648647752494"><ele>310.0</ele><time>2026-04-02T06:48:13Z</time></trkpt><trkpt lat="43.10067265520793" lon="1.6401537322985746"><ele>310.0</ele><time>2026-04-02T06:48:14Z</time></trkpt><trkpt lat="43.1006121044814" lon="1.640440524465218"><ele>310.0</ele><time>2026-04-02T06:48:15Z</time></trkpt><trkpt lat="43.100548241228665" lon="1.6407227068188392"><ele>310.3333333333333</ele><time>2026-04-02T06:48:16Z</time></trkpt><trkpt lat="43.1004866537705" lon="1.6410065757309575"><ele>310.6666666666667</ele><time>2026-04-02T06:48:17Z</time></trkpt><trkpt lat="43.10042646304142" lon="1.6412914033597346"><ele>311.0</ele><time>2026-04-02T06:48:18Z</time></trkpt><trkpt lat="43.10036557605597" lon="1.6415821807132478"><ele>311.0</ele><time>2026-04-02T06:48:19Z</time></trkpt><trkpt lat="43.10030439905675" lon="1.6418818085014526"><ele>311.0</ele><time>2026-04-02T06:48:20Z</time></trkpt><trkpt lat="43.10024175391241" lon="1.6421820064527906"><ele>311.6666666666667</ele><time>2026-04-02T06:48:21Z</time></trkpt><trkpt lat="43.100178397146806" lon="1.6424624555093297"><ele>312.3333333333333</ele><time>2026-04-02T06:48:22Z</time></trkpt><trkpt lat="43.10011987929027" lon="1.6427386111985203"><ele>313.0</ele><time>2026-04-02T06:48:23Z</time></trkpt><trkpt lat="43.100067358523184" lon="1.6430130756712025"><ele>313.0</ele><time>2026-04-02T06:48:24Z</time></trkpt><trkpt lat="43.10001217100011" lon="1.6432853047786808"><ele>313.0</ele><time>2026-04-02T06:48:25Z</time></trkpt><trkpt lat="43.09995871571661" lon="1.6435582971267955"><ele>313.0</ele><time>2026-04-02T06:48:26Z</time></trkpt><trkpt lat="43.0999013759732" lon="1.6438372899676832"><ele>312.66666666666663</ele><time>2026-04-02T06:48:27Z</time></trkpt><trkpt lat="43.09984204739031" lon="1.6441258684665971"><ele>312.3333333333333</ele><time>2026-04-02T06:48:28Z</time></trkpt><trkpt lat="43.099776510693914" lon="1.6444210443201641"><ele>312.0</ele><time>2026-04-02T06:48:29Z</time></trkpt><trkpt lat="43.09971111438823" lon="1.6447182739316657"><ele>312.0</ele><time>2026-04-02T06:48:30Z</time></trkpt><trkpt lat="43.09965167420522" lon="1.645013615549975"><ele>312.0</ele><time>2026-04-02T06:48:31Z</time></trkpt><trkpt lat="43.09959172646375" lon="1.6453096231412772"><ele>312.0</ele><time>2026-04-02T06:48:32Z</time></trkpt><trkpt lat="43.099530938231624" lon="1.6456031492982939"><ele>312.0</ele><time>2026-04-02T06:48:33Z</time></trkpt><trkpt lat="43.09946729157825" lon="1.6458982271322677"><ele>312.0</ele><time>2026-04-02T06:48:34Z</time></trkpt><trkpt lat="43.09940495627811" lon="1.6461905919178965"><ele>312.0</ele><time>2026-04-02T06:48:35Z</time></trkpt><trkpt lat="43.09934339042551" lon="1.6464879371399757"><ele>312.0</ele><time>2026-04-02T06:48:36Z</time></trkpt><trkpt lat="43.099284747255794" lon="1.646784700899302"><ele>312.0</ele><time>2026-04-02T06:48:37Z</time></trkpt><trkpt lat="43.09922458837753" lon="1.647078011852587"><ele>312.0</ele><time>2026-04-02T06:48:38Z</time></trkpt><trkpt lat="43.0991630514661" lon="1.6473738166394625"><ele>312.0</ele><time>2026-04-02T06:48:39Z</time></trkpt><trkpt lat="43.099099124008696" lon="1.6476677506588326"><ele>312.0</ele><time>2026-04-02T06:48:40Z</time></trkpt><trkpt lat="43.09903628197974" lon="1.6479654443020106"><ele>311.5</ele><time>2026-04-02T06:48:41Z</time></trkpt><trkpt lat="43.09897728274676" lon="1.6482623701829768"><ele>311.0</ele><time>2026-04-02T06:48:42Z</time></trkpt><trkpt lat="43.09891662307528" lon="1.6485590298869262"><ele>311.5</ele><time>2026-04-02T06:48:43Z</time></trkpt><trkpt lat="43.09885310740757" lon="1.6488584605493126"><ele>312.0</ele><time>2026-04-02T06:48:44Z</time></trkpt><trkpt lat="43.098792095772964" lon="1.649156369120929"><ele>311.5</ele><time>2026-04-02T06:48:45Z</time></trkpt><trkpt lat="43.09872826695484" lon="1.6494662616481028"><ele>311.0</ele><time>2026-04-02T06:48:46Z</time></trkpt><trkpt lat="43.09865978587301" lon="1.6497950859855413"><ele>311.0</ele><time>2026-04-02T06:48:47Z</time></trkpt><trkpt lat="43.098588560196305" lon="1.6501240571727824"><ele>311.0</ele><time>2026-04-02T06:48:48Z</time></trkpt><trkpt lat="43.098519558005684" lon="1.6504533948537317"><ele>311.0</ele><time>2026-04-02T06:48:49Z</time></trkpt><trkpt lat="43.09845122112964" lon="1.6507818259490332"><ele>311.0</ele><time>2026-04-02T06:48:50Z</time></trkpt><trkpt lat="43.098382970824495" lon="1.651107255801523"><ele>311.0</ele><time>2026-04-02T06:48:51Z</time></trkpt><trkpt lat="43.09831371230622" lon="1.6514250304900238"><ele>311.0</ele><time>2026-04-02T06:48:52Z</time></trkpt><trkpt lat="43.0982474136665" lon="1.6517358907238835"><ele>311.5</ele><time>2026-04-02T06:48:53Z</time></trkpt><trkpt lat="43.09818455349376" lon="1.6520403850626804"><ele>312.0</ele><time>2026-04-02T06:48:54Z</time></trkpt><trkpt lat="43.09812129216584" lon="1.652332564996847"><ele>312.0</ele><time>2026-04-02T06:48:55Z</time></trkpt><trkpt lat="43.098060086804566" lon="1.652613472336397"><ele>312.0</ele><time>2026-04-02T06:48:56Z</time></trkpt><trkpt lat="43.09800268832769" lon="1.6528827866445046"><ele>312.0</ele><time>2026-04-02T06:48:57Z</time></trkpt><trkpt lat="43.097950794119356" lon="1.6531327067173123"><ele>313.0</ele><time>2026-04-02T06:48:58Z</time></trkpt><trkpt lat="43.097904787066824" lon="1.6533566353447022"><ele>314.0</ele><time>2026-04-02T06:48:59Z</time></trkpt><trkpt lat="43.0978638012506" lon="1.6535559425896948"><ele>315.0</ele><time>2026-04-02T06:49:00Z</time></trkpt><trkpt lat="43.0978231307044" lon="1.6537198999122433"><ele>316.0</ele><time>2026-04-02T06:49:01Z</time></trkpt><trkpt lat="43.097771638227776" lon="1.6538645260884992"><ele>316.2</ele><time>2026-04-02T06:49:02Z</time></trkpt><trkpt lat="43.09771129566986" lon="1.6539869816446706"><ele>316.40000000000003</ele><time>2026-04-02T06:49:03Z</time></trkpt><trkpt lat="43.0976369466509" lon="1.654080351544652"><ele>316.6</ele><time>2026-04-02T06:49:04Z</time></trkpt><trkpt lat="43.09757441803987" lon="1.6541666347058435"><ele>316.8</ele><time>2026-04-02T06:49:05Z</time></trkpt><trkpt lat="43.097543959099355" lon="1.6542759285152802"><ele>317.0</ele><time>2026-04-02T06:49:06Z</time></trkpt><trkpt lat="43.09754946881823" lon="1.6543993672958612"><ele>317.5</ele><time>2026-04-02T06:49:07Z</time></trkpt><trkpt lat="43.09757772185506" lon="1.654534599035641"><ele>318.0</ele><time>2026-04-02T06:49:08Z</time></trkpt><trkpt lat="43.09760240416039" lon="1.6546874822989943"><ele>318.5</ele><time>2026-04-02T06:49:09Z</time></trkpt><trkpt lat="43.09759752415938" lon="1.654873552169736"><ele>319.0</ele><time>2026-04-02T06:49:10Z</time></trkpt><trkpt lat="43.09756034212076" lon="1.655066911057271"><ele>319.0</ele><time>2026-04-02T06:49:11Z</time></trkpt><trkpt lat="43.09751936990686" lon="1.6552351409404482"><ele>319.0</ele><time>2026-04-02T06:49:12Z</time></trkpt><trkpt lat="43.09748107731944" lon="1.6553892571477122"><ele>319.0</ele><time>2026-04-02T06:49:13Z</time></trkpt><trkpt lat="43.09744553102249" lon="1.655546702840904"><ele>319.0</ele><time>2026-04-02T06:49:14Z</time></trkpt><trkpt lat="43.09740951912303" lon="1.6557185123343743"><ele>319.25</ele><time>2026-04-02T06:49:15Z</time></trkpt><trkpt lat="43.09736853279735" lon="1.655909052713088"><ele>319.5</ele><time>2026-04-02T06:49:16Z</time></trkpt><trkpt lat="43.0973269029973" lon="1.6561018663812643"><ele>319.75</ele><time>2026-04-02T06:49:17Z</time></trkpt><trkpt lat="43.09728650302305" lon="1.6562805630788364"><ele>320.0</ele><time>2026-04-02T06:49:18Z</time></trkpt><trkpt lat="43.09724872179304" lon="1.6564547735771085"><ele>320.0</ele><time>2026-04-02T06:49:19Z</time></trkpt><trkpt lat="43.09721144876063" lon="1.6566435279695344"><ele>320.0</ele><time>2026-04-02T06:49:20Z</time></trkpt><trkpt lat="43.097172641140844" lon="1.6568431941871626"><ele>320.0</ele><time>2026-04-02T06:49:21Z</time></trkpt><trkpt lat="43.09712693917121" lon="1.6570545340161142"><ele>319.33333333333337</ele><time>2026-04-02T06:49:22Z</time></trkpt><trkpt lat="43.097078533182646" lon="1.657270886227194"><ele>318.6666666666667</ele><time>2026-04-02T06:49:23Z</time></trkpt><trkpt lat="43.097028883823995" lon="1.657487612194257"><ele>318.0</ele><time>2026-04-02T06:49:24Z</time></trkpt><trkpt lat="43.0969807127717" lon="1.6577074847489186"><ele>318.0</ele><time>2026-04-02T06:49:25Z</time></trkpt><trkpt lat="43.09693485574507" lon="1.657927706767"><ele>318.0</ele><time>2026-04-02T06:49:26Z</time></trkpt><trkpt lat="43.0968899429816" lon="1.6581497060969064"><ele>318.0</ele><time>2026-04-02T06:49:27Z</time></trkpt><trkpt lat="43.09684353389872" lon="1.6583722786064503"><ele>318.0</ele><time>2026-04-02T06:49:28Z</time></trkpt><trkpt lat="43.096794742570296" lon="1.658603731088976"><ele>318.0</ele><time>2026-04-02T06:49:29Z</time></trkpt><trkpt lat="43.09674476136613" lon="1.6588379783405014"><ele>318.0</ele><time>2026-04-02T06:49:30Z</time></trkpt><trkpt lat="43.09669377065441" lon="1.6590793195787814"><ele>318.3333333333333</ele><time>2026-04-02T06:49:31Z</time></trkpt><trkpt lat="43.09664163183361" lon="1.659323842385851"><ele>318.66666666666663</ele><time>2026-04-02T06:49:32Z</time></trkpt><trkpt lat="43.0965887013156" lon="1.6595748215941397"><ele>319.0</ele><time>2026-04-02T06:49:33Z</time></trkpt><trkpt lat="43.096531707100496" lon="1.6598409503023703"><ele>319.66666666666663</ele><time>2026-04-02T06:49:34Z</time></trkpt><trkpt lat="43.09647537400448" lon="1.6601095864350917"><ele>320.3333333333333</ele><time>2026-04-02T06:49:35Z</time></trkpt><trkpt lat="43.096421186677375" lon="1.6603808019011113"><ele>321.0</ele><time>2026-04-02T06:49:36Z</time></trkpt><trkpt lat="43.09636713562628" lon="1.6606602713170413"><ele>321.0</ele><time>2026-04-02T06:49:37Z</time></trkpt><trkpt lat="43.09631008336666" lon="1.6609434006040789"><ele>321.0</ele><time>2026-04-02T06:49:38Z</time></trkpt><trkpt lat="43.09624949933992" lon="1.6612274818721875"><ele>321.0</ele><time>2026-04-02T06:49:39Z</time></trkpt><trkpt lat="43.09618489941282" lon="1.661506427626408"><ele>320.6666666666667</ele><time>2026-04-02T06:49:40Z</time></trkpt><trkpt lat="43.09612243744731" lon="1.6617819933977809"><ele>320.33333333333337</ele><time>2026-04-02T06:49:41Z</time></trkpt><trkpt lat="43.09606398374491" lon="1.6620525606288348"><ele>320.0</ele><time>2026-04-02T06:49:42Z</time></trkpt><trkpt lat="43.0960107106581" lon="1.6623252140023657"><ele>320.0</ele><time>2026-04-02T06:49:43Z</time></trkpt><trkpt lat="43.09595627240461" lon="1.662595405405116"><ele>320.0</ele><time>2026-04-02T06:49:44Z</time></trkpt><trkpt lat="43.09589975230347" lon="1.6628637594296578"><ele>320.0</ele><time>2026-04-02T06:49:45Z</time></trkpt><trkpt lat="43.09584327900937" lon="1.6631290878502505"><ele>319.6666666666667</ele><time>2026-04-02T06:49:46Z</time></trkpt><trkpt lat="43.095787848804115" lon="1.6633880993694186"><ele>319.3333333333333</ele><time>2026-04-02T06:49:47Z</time></trkpt><trkpt lat="43.09572764259471" lon="1.6636444441962512"><ele>319.0</ele><time>2026-04-02T06:49:48Z</time></trkpt><trkpt lat="43.095672609176916" lon="1.6638975394385955"><ele>319.0</ele><time>2026-04-02T06:49:49Z</time></trkpt><trkpt lat="43.09561955965742" lon="1.6641541133558988"><ele>319.0</ele><time>2026-04-02T06:49:50Z</time></trkpt><trkpt lat="43.09556589687855" lon="1.6644077983495267"><ele>319.0</ele><time>2026-04-02T06:49:51Z</time></trkpt><trkpt lat="43.095511786728494" lon="1.6646638453736184"><ele>319.3333333333333</ele><time>2026-04-02T06:49:52Z</time></trkpt><trkpt lat="43.09545768675306" lon="1.6649196846253818"><ele>319.6666666666667</ele><time>2026-04-02T06:49:53Z</time></trkpt><trkpt lat="43.09540241080648" lon="1.6651817665357116"><ele>320.0</ele><time>2026-04-02T06:49:54Z</time></trkpt><trkpt lat="43.09535048900543" lon="1.665436704194678"><ele>319.33333333333337</ele><time>2026-04-02T06:49:55Z</time></trkpt><trkpt lat="43.09529874328674" lon="1.6656841383032153"><ele>318.6666666666667</ele><time>2026-04-02T06:49:56Z</time></trkpt><trkpt lat="43.09524212994251" lon="1.6659431467174382"><ele>318.0</ele><time>2026-04-02T06:49:57Z</time></trkpt><trkpt lat="43.09518367818311" lon="1.6662062987263488"><ele>318.0</ele><time>2026-04-02T06:49:58Z</time></trkpt><trkpt lat="43.09512938266304" lon="1.6664663060343738"><ele>318.0</ele><time>2026-04-02T06:49:59Z</time></trkpt><trkpt lat="43.095073777036994" lon="1.666728617562204"><ele>318.0</ele><time>2026-04-02T06:50:00Z</time></trkpt><trkpt lat="43.09501739109252" lon="1.666989581518363"><ele>318.0</ele><time>2026-04-02T06:50:01Z</time></trkpt><trkpt lat="43.09496192959852" lon="1.6672621569580979"><ele>318.0</ele><time>2026-04-02T06:50:02Z</time></trkpt><trkpt lat="43.09490908346552" lon="1.6675466131376817"><ele>318.0</ele><time>2026-04-02T06:50:03Z</time></trkpt><trkpt lat="43.09485553786621" lon="1.6678313573194652"><ele>318.0</ele><time>2026-04-02T06:50:04Z</time></trkpt><trkpt lat="43.09479601952962" lon="1.6681203066568202"><ele>318.0</ele><time>2026-04-02T06:50:05Z</time></trkpt><trkpt lat="43.09473252683196" lon="1.668400076983354"><ele>318.0</ele><time>2026-04-02T06:50:06Z</time></trkpt><trkpt lat="43.09467059656542" lon="1.66866213155454"><ele>317.6666666666667</ele><time>2026-04-02T06:50:07Z</time></trkpt><trkpt lat="43.094613233555926" lon="1.6689169367273804"><ele>317.33333333333337</ele><time>2026-04-02T06:50:08Z</time></trkpt><trkpt lat="43.094559848853955" lon="1.6691732924334772"><ele>317.0</ele><time>2026-04-02T06:50:09Z</time></trkpt><trkpt lat="43.09450405668067" lon="1.6694311652751115"><ele>317.0</ele><time>2026-04-02T06:50:10Z</time></trkpt><trkpt lat="43.09444757432031" lon="1.669692732712269"><ele>317.0</ele><time>2026-04-02T06:50:11Z</time></trkpt><trkpt lat="43.09439579198316" lon="1.6699625249081556"><ele>317.0</ele><time>2026-04-02T06:50:12Z</time></trkpt><trkpt lat="43.0943442101783" lon="1.6702341023361957"><ele>317.0</ele><time>2026-04-02T06:50:13Z</time></trkpt><trkpt lat="43.094288083083285" lon="1.670501505083766"><ele>317.0</ele><time>2026-04-02T06:50:14Z</time></trkpt><trkpt lat="43.094231549520686" lon="1.6707645011524903"><ele>317.0</ele><time>2026-04-02T06:50:15Z</time></trkpt><trkpt lat="43.09417726467984" lon="1.6710235945135765"><ele>317.0</ele><time>2026-04-02T06:50:16Z</time></trkpt><trkpt lat="43.09412492803248" lon="1.671278026196073"><ele>317.0</ele><time>2026-04-02T06:50:17Z</time></trkpt><trkpt lat="43.094068416720496" lon="1.6715282641275002"><ele>317.0</ele><time>2026-04-02T06:50:18Z</time></trkpt><trkpt lat="43.094009487996175" lon="1.6717745601399256"><ele>317.6666666666667</ele><time>2026-04-02T06:50:19Z</time></trkpt><trkpt lat="43.09395153908496" lon="1.672033588669154"><ele>318.3333333333333</ele><time>2026-04-02T06:50:20Z</time></trkpt><trkpt lat="43.09389826482234" lon="1.6723054206064334"><ele>319.0</ele><time>2026-04-02T06:50:21Z</time></trkpt><trkpt lat="43.09384746148685" lon="1.6725713934369288"><ele>318.66666666666663</ele><time>2026-04-02T06:50:22Z</time></trkpt><trkpt lat="43.0937923491294" lon="1.6728278000559793"><ele>318.3333333333333</ele><time>2026-04-02T06:50:23Z</time></trkpt><trkpt lat="43.093733867430814" lon="1.673081836159428"><ele>318.0</ele><time>2026-04-02T06:50:24Z</time></trkpt><trkpt lat="43.09367656666584" lon="1.6733347296146677"><ele>318.0</ele><time>2026-04-02T06:50:25Z</time></trkpt><trkpt lat="43.0936215993716" lon="1.6735880869994675"><ele>318.0</ele><time>2026-04-02T06:50:26Z</time></trkpt><trkpt lat="43.09356809265081" lon="1.673847238890509"><ele>318.0</ele><time>2026-04-02T06:50:27Z</time></trkpt><trkpt lat="43.09351433847159" lon="1.6741091140899682"><ele>318.0</ele><time>2026-04-02T06:50:28Z</time></trkpt><trkpt lat="43.093461140143134" lon="1.6743690591997749"><ele>318.0</ele><time>2026-04-02T06:50:29Z</time></trkpt><trkpt lat="43.09340871929723" lon="1.6746285690434355"><ele>318.0</ele><time>2026-04-02T06:50:30Z</time></trkpt><trkpt lat="43.09335635210971" lon="1.6748842498662304"><ele>318.0</ele><time>2026-04-02T06:50:31Z</time></trkpt><trkpt lat="43.09330277807117" lon="1.675135905860881"><ele>318.0</ele><time>2026-04-02T06:50:32Z</time></trkpt><trkpt lat="43.09324865414532" lon="1.6753852947212087"><ele>318.0</ele><time>2026-04-02T06:50:33Z</time></trkpt><trkpt lat="43.09319564408732" lon="1.675639290776634"><ele>318.3333333333333</ele><time>2026-04-02T06:50:34Z</time></trkpt><trkpt lat="43.09313970621539" lon="1.6759160089868423"><ele>318.66666666666663</ele><time>2026-04-02T06:50:35Z</time></trkpt><trkpt lat="43.09308123894374" lon="1.676205690127998"><ele>319.0</ele><time>2026-04-02T06:50:36Z</time></trkpt><trkpt lat="43.09302027776292" lon="1.6765124731232917"><ele>319.0</ele><time>2026-04-02T06:50:37Z</time></trkpt><trkpt lat="43.092959449156396" lon="1.676812439263984"><ele>319.0</ele><time>2026-04-02T06:50:38Z</time></trkpt><trkpt lat="43.092894657228825" lon="1.6771159562924038"><ele>319.0</ele><time>2026-04-02T06:50:39Z</time></trkpt><trkpt lat="43.09282682601687" lon="1.6774440342800827"><ele>319.0</ele><time>2026-04-02T06:50:40Z</time></trkpt><trkpt lat="43.09276351299878" lon="1.677795521139919"><ele>319.0</ele><time>2026-04-02T06:50:41Z</time></trkpt><trkpt lat="43.09269099223164" lon="1.6781527955742959"><ele>319.0</ele><time>2026-04-02T06:50:42Z</time></trkpt><trkpt lat="43.09260456667087" lon="1.6785068473136795"><ele>318.5</ele><time>2026-04-02T06:50:43Z</time></trkpt><trkpt lat="43.09251785561274" lon="1.678861677991499"><ele>318.0</ele><time>2026-04-02T06:50:44Z</time></trkpt><trkpt lat="43.09244619409573" lon="1.6792190051388916"><ele>319.5</ele><time>2026-04-02T06:50:45Z</time></trkpt><trkpt lat="43.09237630613751" lon="1.679573924819135"><ele>321.0</ele><time>2026-04-02T06:50:46Z</time></trkpt><trkpt lat="43.09232207693872" lon="1.679923402770875"><ele>324.0</ele><time>2026-04-02T06:50:47Z</time></trkpt><trkpt lat="43.092300258547795" lon="1.6802743240612634"><ele>327.0</ele><time>2026-04-02T06:50:48Z</time></trkpt><trkpt lat="43.092312917173416" lon="1.6806184789564778"><ele>327.0</ele><time>2026-04-02T06:50:49Z</time></trkpt><trkpt lat="43.09235468208172" lon="1.6809495958716278"><ele>327.0</ele><time>2026-04-02T06:50:50Z</time></trkpt><trkpt lat="43.092411333137505" lon="1.68126557805563"><ele>327.5</ele><time>2026-04-02T06:50:51Z</time></trkpt><trkpt lat="43.09247101702577" lon="1.6815693768314686"><ele>328.0</ele><time>2026-04-02T06:50:52Z</time></trkpt><trkpt lat="43.092549152551314" lon="1.6818598316532773"><ele>333.0</ele><time>2026-04-02T06:50:53Z</time></trkpt><trkpt lat="43.09265278905303" lon="1.6821537354497318"><ele>338.0</ele><time>2026-04-02T06:50:54Z</time></trkpt><trkpt lat="43.09279487272304" lon="1.6824391403729166"><ele>338.0</ele><time>2026-04-02T06:50:55Z</time></trkpt><trkpt lat="43.092921578573545" lon="1.6827117533234237"><ele>338.0</ele><time>2026-04-02T06:50:56Z</time></trkpt><trkpt lat="43.09302987871216" lon="1.6829636957232494"><ele>338.0</ele><time>2026-04-02T06:50:57Z</time></trkpt><trkpt lat="43.093126824583685" lon="1.6832125491675938"><ele>338.0</ele><time>2026-04-02T06:50:58Z</time></trkpt><trkpt lat="43.09320931356322" lon="1.683481857804121"><ele>338.0</ele><time>2026-04-02T06:50:59Z</time></trkpt><trkpt lat="43.093270191864256" lon="1.6837588832334998"><ele>338.0</ele><time>2026-04-02T06:51:00Z</time></trkpt><trkpt lat="43.09331803714459" lon="1.6840439951240136"><ele>338.0</ele><time>2026-04-02T06:51:01Z</time></trkpt><trkpt lat="43.093345065342426" lon="1.6843338335954405"><ele>338.0</ele><time>2026-04-02T06:51:02Z</time></trkpt><trkpt lat="43.09334464375011" lon="1.6846328226137648"><ele>338.0</ele><time>2026-04-02T06:51:03Z</time></trkpt><trkpt lat="43.09332717876529" lon="1.6849413049456006"><ele>338.0</ele><time>2026-04-02T06:51:04Z</time></trkpt><trkpt lat="43.09330359378046" lon="1.6852183099339861"><ele>338.0</ele><time>2026-04-02T06:51:05Z</time></trkpt><trkpt lat="43.0932832003005" lon="1.6854708816465054"><ele>338.0</ele><time>2026-04-02T06:51:06Z</time></trkpt><trkpt lat="43.09326903821152" lon="1.6857281142150056"><ele>338.33333333333337</ele><time>2026-04-02T06:51:07Z</time></trkpt><trkpt lat="43.09325966902614" lon="1.6859981939865987"><ele>338.6666666666667</ele><time>2026-04-02T06:51:08Z</time></trkpt><trkpt lat="43.093249395791425" lon="1.6862781333803516"><ele>339.0</ele><time>2026-04-02T06:51:09Z</time></trkpt><trkpt lat="43.09323517571624" lon="1.6865586508392583"><ele>339.0</ele><time>2026-04-02T06:51:10Z</time></trkpt><trkpt lat="43.09322193753778" lon="1.6868345733914718"><ele>339.0</ele><time>2026-04-02T06:51:11Z</time></trkpt><trkpt lat="43.093209219704555" lon="1.6871061483909955"><ele>339.0</ele><time>2026-04-02T06:51:12Z</time></trkpt><trkpt lat="43.09319698438333" lon="1.6873748898953598"><ele>339.0</ele><time>2026-04-02T06:51:13Z</time></trkpt><trkpt lat="43.09318573253796" lon="1.6876419292854012"><ele>339.0</ele><time>2026-04-02T06:51:14Z</time></trkpt><trkpt lat="43.09317511781735" lon="1.6879071386192197"><ele>339.0</ele><time>2026-04-02T06:51:15Z</time></trkpt><trkpt lat="43.09316365355548" lon="1.688172517214065"><ele>338.6666666666667</ele><time>2026-04-02T06:51:16Z</time></trkpt><trkpt lat="43.093150181894195" lon="1.6884371322190646"><ele>338.33333333333337</ele><time>2026-04-02T06:51:17Z</time></trkpt><trkpt lat="43.09313580901503" lon="1.6887038965391246"><ele>338.0</ele><time>2026-04-02T06:51:18Z</time></trkpt><trkpt lat="43.0931223292151" lon="1.6889716065182168"><ele>338.0</ele><time>2026-04-02T06:51:19Z</time></trkpt><trkpt lat="43.093109442186766" lon="1.6892441766239294"><ele>338.0</ele><time>2026-04-02T06:51:20Z</time></trkpt><trkpt lat="43.093097836130944" lon="1.6895217761826569"><ele>338.0</ele><time>2026-04-02T06:51:21Z</time></trkpt><trkpt lat="43.09308558034152" lon="1.6898176240747718"><ele>338.0</ele><time>2026-04-02T06:51:22Z</time></trkpt><trkpt lat="43.093070398876634" lon="1.6901199654253931"><ele>338.0</ele><time>2026-04-02T06:51:23Z</time></trkpt><trkpt lat="43.093057336483916" lon="1.6904280548841812"><ele>338.0</ele><time>2026-04-02T06:51:24Z</time></trkpt><trkpt lat="43.093045551138076" lon="1.6907451668222484"><ele>338.0</ele><time>2026-04-02T06:51:25Z</time></trkpt><trkpt lat="43.09303248042635" lon="1.6910587190469728"><ele>338.0</ele><time>2026-04-02T06:51:26Z</time></trkpt><trkpt lat="43.09301864340022" lon="1.6913741660087558"><ele>337.5</ele><time>2026-04-02T06:51:27Z</time></trkpt><trkpt lat="43.09300299706953" lon="1.691690985205276"><ele>337.0</ele><time>2026-04-02T06:51:28Z</time></trkpt><trkpt lat="43.09298675508778" lon="1.6920085584886333"><ele>337.0</ele><time>2026-04-02T06:51:29Z</time></trkpt><trkpt lat="43.09297182754621" lon="1.692326936555312"><ele>337.0</ele><time>2026-04-02T06:51:30Z</time></trkpt><trkpt lat="43.09296071475323" lon="1.6926462331923506"><ele>337.5</ele><time>2026-04-02T06:51:31Z</time></trkpt><trkpt lat="43.09294967278552" lon="1.6929658729235866"><ele>338.0</ele><time>2026-04-02T06:51:32Z</time></trkpt><trkpt lat="43.09293614764411" lon="1.6932847359135528"><ele>338.5</ele><time>2026-04-02T06:51:33Z</time></trkpt><trkpt lat="43.09292057508244" lon="1.693599662090894"><ele>339.0</ele><time>2026-04-02T06:51:34Z</time></trkpt><trkpt lat="43.09290506727164" lon="1.6939165235100015"><ele>339.0</ele><time>2026-04-02T06:51:35Z</time></trkpt><trkpt lat="43.09288903601836" lon="1.6942292232589389"><ele>339.0</ele><time>2026-04-02T06:51:36Z</time></trkpt><trkpt lat="43.092872169260765" lon="1.694540663568769"><ele>339.5</ele><time>2026-04-02T06:51:37Z</time></trkpt><trkpt lat="43.09285858846619" lon="1.694854728951486"><ele>340.0</ele><time>2026-04-02T06:51:38Z</time></trkpt><trkpt lat="43.09284342811844" lon="1.69516672677445"><ele>340.0</ele><time>2026-04-02T06:51:39Z</time></trkpt><trkpt lat="43.09282874480238" lon="1.695484405960581"><ele>340.0</ele><time>2026-04-02T06:51:40Z</time></trkpt><trkpt lat="43.09281478377775" lon="1.6957982890005223"><ele>339.5</ele><time>2026-04-02T06:51:41Z</time></trkpt><trkpt lat="43.09280107385039" lon="1.6961130606693515"><ele>339.0</ele><time>2026-04-02T06:51:42Z</time></trkpt><trkpt lat="43.09278707701296" lon="1.6964215083907386"><ele>339.0</ele><time>2026-04-02T06:51:43Z</time></trkpt><trkpt lat="43.09277500413022" lon="1.696731450579857"><ele>339.0</ele><time>2026-04-02T06:51:44Z</time></trkpt><trkpt lat="43.09276237456398" lon="1.6970392843652886"><ele>339.0</ele><time>2026-04-02T06:51:45Z</time></trkpt><trkpt lat="43.09275025348886" lon="1.697348028502546"><ele>339.0</ele><time>2026-04-02T06:51:46Z</time></trkpt><trkpt lat="43.09273816328462" lon="1.6976540796038624"><ele>339.0</ele><time>2026-04-02T06:51:47Z</time></trkpt><trkpt lat="43.09272588137317" lon="1.6979609405362395"><ele>339.0</ele><time>2026-04-02T06:51:48Z</time></trkpt><trkpt lat="43.09271287302102" lon="1.6982821438246398"><ele>338.5</ele><time>2026-04-02T06:51:49Z</time></trkpt><trkpt lat="43.092695759542146" lon="1.698606981133232"><ele>338.0</ele><time>2026-04-02T06:51:50Z</time></trkpt><trkpt lat="43.092684141608565" lon="1.698922143342866"><ele>338.0</ele><time>2026-04-02T06:51:51Z</time></trkpt><trkpt lat="43.09267065594486" lon="1.6992341449550676"><ele>338.0</ele><time>2026-04-02T06:51:52Z</time></trkpt><trkpt lat="43.092657740606626" lon="1.6995482777395696"><ele>337.5</ele><time>2026-04-02T06:51:53Z</time></trkpt><trkpt lat="43.092643947073206" lon="1.6998590269745317"><ele>337.0</ele><time>2026-04-02T06:51:54Z</time></trkpt><trkpt lat="43.092629247491" lon="1.7001704877288566"><ele>337.5</ele><time>2026-04-02T06:51:55Z</time></trkpt><trkpt lat="43.09261327944071" lon="1.7004829527639946"><ele>338.0</ele><time>2026-04-02T06:51:56Z</time></trkpt><trkpt lat="43.092599724668034" lon="1.700796995933292"><ele>338.0</ele><time>2026-04-02T06:51:57Z</time></trkpt><trkpt lat="43.09259048397446" lon="1.7011083045883433"><ele>338.0</ele><time>2026-04-02T06:51:58Z</time></trkpt><trkpt lat="43.092578208850355" lon="1.7014151995996873"><ele>338.0</ele><time>2026-04-02T06:51:59Z</time></trkpt><trkpt lat="43.09256252945434" lon="1.7017232607179948"><ele>338.0</ele><time>2026-04-02T06:52:00Z</time></trkpt><trkpt lat="43.09254873009737" lon="1.7020299263804837"><ele>338.0</ele><time>2026-04-02T06:52:01Z</time></trkpt><trkpt lat="43.092536563719804" lon="1.7023377405827747"><ele>338.0</ele><time>2026-04-02T06:52:02Z</time></trkpt><trkpt lat="43.09252148852382" lon="1.7026476181956307"><ele>337.5</ele><time>2026-04-02T06:52:03Z</time></trkpt><trkpt lat="43.092504591898106" lon="1.7029592600112238"><ele>337.0</ele><time>2026-04-02T06:52:04Z</time></trkpt><trkpt lat="43.09249336249837" lon="1.7032703433691643"><ele>337.0</ele><time>2026-04-02T06:52:05Z</time></trkpt><trkpt lat="43.09248341598427" lon="1.7035849539068908"><ele>337.0</ele><time>2026-04-02T06:52:06Z</time></trkpt><trkpt lat="43.09247038366714" lon="1.7038972877739706"><ele>337.0</ele><time>2026-04-02T06:52:07Z</time></trkpt><trkpt lat="43.092454010608186" lon="1.7042102525517164"><ele>337.0</ele><time>2026-04-02T06:52:08Z</time></trkpt><trkpt lat="43.09244180955057" lon="1.7045260945131113"><ele>336.5</ele><time>2026-04-02T06:52:09Z</time></trkpt><trkpt lat="43.092430343768704" lon="1.704841266831325"><ele>336.0</ele><time>2026-04-02T06:52:10Z</time></trkpt><trkpt lat="43.09241724242506" lon="1.7051563088112802"><ele>335.5</ele><time>2026-04-02T06:52:11Z</time></trkpt><trkpt lat="43.092399176886445" lon="1.705474367502794"><ele>335.0</ele><time>2026-04-02T06:52:12Z</time></trkpt><trkpt lat="43.092379852427634" lon="1.7057931961993198"><ele>335.5</ele><time>2026-04-02T06:52:13Z</time></trkpt><trkpt lat="43.09236186295042" lon="1.706110607242659"><ele>336.0</ele><time>2026-04-02T06:52:14Z</time></trkpt><trkpt lat="43.0923436386356" lon="1.7064236446421437"><ele>336.0</ele><time>2026-04-02T06:52:15Z</time></trkpt><trkpt lat="43.09232291318265" lon="1.7067353897011956"><ele>336.0</ele><time>2026-04-02T06:52:16Z</time></trkpt><trkpt lat="43.09230155042735" lon="1.7070477548300391"><ele>335.5</ele><time>2026-04-02T06:52:17Z</time></trkpt><trkpt lat="43.09228424831828" lon="1.7073582331780506"><ele>335.0</ele><time>2026-04-02T06:52:18Z</time></trkpt><trkpt lat="43.09227538946564" lon="1.707669493784512"><ele>335.0</ele><time>2026-04-02T06:52:19Z</time></trkpt><trkpt lat="43.09227442000214" lon="1.7079767955646612"><ele>335.0</ele><time>2026-04-02T06:52:20Z</time></trkpt><trkpt lat="43.0922660840981" lon="1.7082927017711818"><ele>335.0</ele><time>2026-04-02T06:52:21Z</time></trkpt><trkpt lat="43.09226423758513" lon="1.7086211337513326"><ele>335.0</ele><time>2026-04-02T06:52:22Z</time></trkpt><trkpt lat="43.09228410638147" lon="1.7089427948526934"><ele>335.0</ele><time>2026-04-02T06:52:23Z</time></trkpt><trkpt lat="43.0923232254257" lon="1.7092633171937954"><ele>335.0</ele><time>2026-04-02T06:52:24Z</time></trkpt><trkpt lat="43.09238719370492" lon="1.7096055795602378"><ele>332.5</ele><time>2026-04-02T06:52:25Z</time></trkpt><trkpt lat="43.0924709677204" lon="1.7099546666432233"><ele>330.0</ele><time>2026-04-02T06:52:26Z</time></trkpt><trkpt lat="43.092570222964554" lon="1.7103146664732167"><ele>329.5</ele><time>2026-04-02T06:52:27Z</time></trkpt><trkpt lat="43.09267631721608" lon="1.7106947378581012"><ele>329.0</ele><time>2026-04-02T06:52:28Z</time></trkpt><trkpt lat="43.092780565421435" lon="1.7110986313701866"><ele>329.0</ele><time>2026-04-02T06:52:29Z</time></trkpt><trkpt lat="43.09287490064144" lon="1.7114943340041733"><ele>329.0</ele><time>2026-04-02T06:52:30Z</time></trkpt><trkpt lat="43.0929607373902" lon="1.7118593762470897"><ele>329.5</ele><time>2026-04-02T06:52:31Z</time></trkpt><trkpt lat="43.09304978483998" lon="1.7122026332091875"><ele>330.0</ele><time>2026-04-02T06:52:32Z</time></trkpt><trkpt lat="43.0931452297771" lon="1.712551948174347"><ele>328.0</ele><time>2026-04-02T06:52:33Z</time></trkpt><trkpt lat="43.093231162511096" lon="1.712935929952031"><ele>326.0</ele><time>2026-04-02T06:52:34Z</time></trkpt><trkpt lat="43.093287991757336" lon="1.713337321844205"><ele>321.5</ele><time>2026-04-02T06:52:35Z</time></trkpt><trkpt lat="43.09332120075104" lon="1.713713072438318"><ele>317.0</ele><time>2026-04-02T06:52:36Z</time></trkpt><trkpt lat="43.09335013068931" lon="1.7140743934759255"><ele>314.0</ele><time>2026-04-02T06:52:37Z</time></trkpt><trkpt lat="43.09337278468261" lon="1.7144127965367926"><ele>311.0</ele><time>2026-04-02T06:52:38Z</time></trkpt><trkpt lat="43.09339401975026" lon="1.7147484365268382"><ele>311.0</ele><time>2026-04-02T06:52:39Z</time></trkpt><trkpt lat="43.093414605919165" lon="1.71507113284866"><ele>311.0</ele><time>2026-04-02T06:52:40Z</time></trkpt><trkpt lat="43.09343739156999" lon="1.715391058629249"><ele>307.0</ele><time>2026-04-02T06:52:41Z</time></trkpt><trkpt lat="43.09346306793175" lon="1.7157200248341489"><ele>303.0</ele><time>2026-04-02T06:52:42Z</time></trkpt><trkpt lat="43.09348998817614" lon="1.7160527517481867"><ele>302.0</ele><time>2026-04-02T06:52:43Z</time></trkpt><trkpt lat="43.09351502983995" lon="1.7163703175038585"><ele>301.0</ele><time>2026-04-02T06:52:44Z</time></trkpt><trkpt lat="43.093536635983796" lon="1.7166818322902595"><ele>301.0</ele><time>2026-04-02T06:52:45Z</time></trkpt><trkpt lat="43.09355431345991" lon="1.7169989143236615"><ele>301.0</ele><time>2026-04-02T06:52:46Z</time></trkpt><trkpt lat="43.09356722342357" lon="1.717305398415916"><ele>301.0</ele><time>2026-04-02T06:52:47Z</time></trkpt><trkpt lat="43.0935759483505" lon="1.7175941675364517"><ele>301.0</ele><time>2026-04-02T06:52:48Z</time></trkpt><trkpt lat="43.093577016947876" lon="1.717871727301415"><ele>301.0</ele><time>2026-04-02T06:52:49Z</time></trkpt><trkpt lat="43.0935670321203" lon="1.7181410995931026"><ele>299.66666666666663</ele><time>2026-04-02T06:52:50Z</time></trkpt><trkpt lat="43.09355073681005" lon="1.7184013370259856"><ele>298.3333333333333</ele><time>2026-04-02T06:52:51Z</time></trkpt><trkpt lat="43.09353280498053" lon="1.7186490221859028"><ele>297.0</ele><time>2026-04-02T06:52:52Z</time></trkpt><trkpt lat="43.0935134234776" lon="1.7188731700506765"><ele>296.75</ele><time>2026-04-02T06:52:53Z</time></trkpt><trkpt lat="43.09349671905849" lon="1.7190700136404966"><ele>296.5</ele><time>2026-04-02T06:52:54Z</time></trkpt><trkpt lat="43.09348387632834" lon="1.7192379271877252"><ele>296.25</ele><time>2026-04-02T06:52:55Z</time></trkpt><trkpt lat="43.09347459991379" lon="1.7193997767322902"><ele>296.0</ele><time>2026-04-02T06:52:56Z</time></trkpt><trkpt lat="43.09346283530064" lon="1.7195608440658368"><ele>295.40000000000003</ele><time>2026-04-02T06:52:57Z</time></trkpt><trkpt lat="43.093450786270736" lon="1.7197146384048534"><ele>294.8</ele><time>2026-04-02T06:52:58Z</time></trkpt><trkpt lat="43.0934321839572" lon="1.7198633569123243"><ele>294.20000000000005</ele><time>2026-04-02T06:52:59Z</time></trkpt><trkpt lat="43.09341100751886" lon="1.7200058980731412"><ele>293.6</ele><time>2026-04-02T06:53:00Z</time></trkpt><trkpt lat="43.09339202787943" lon="1.720143435090869"><ele>293.0</ele><time>2026-04-02T06:53:01Z</time></trkpt><trkpt lat="43.093380602494534" lon="1.7202755867458692"><ele>293.0</ele><time>2026-04-02T06:53:02Z</time></trkpt><trkpt lat="43.09337325549226" lon="1.7204002443885626"><ele>293.0</ele><time>2026-04-02T06:53:03Z</time></trkpt><trkpt lat="43.093366211204646" lon="1.7205247286312688"><ele>293.0</ele><time>2026-04-02T06:53:04Z</time></trkpt><trkpt lat="43.0933574125938" lon="1.7206594349150148"><ele>293.0</ele><time>2026-04-02T06:53:05Z</time></trkpt><trkpt lat="43.09334546073476" lon="1.7208010109535647"><ele>293.0</ele><time>2026-04-02T06:53:06Z</time></trkpt><trkpt lat="43.09333808059125" lon="1.7209366135803057"><ele>293.0</ele><time>2026-04-02T06:53:07Z</time></trkpt><trkpt lat="43.09332568691904" lon="1.7210636636687737"><ele>293.0</ele><time>2026-04-02T06:53:08Z</time></trkpt><trkpt lat="43.09331640266947" lon="1.721195913762181"><ele>293.0</ele><time>2026-04-02T06:53:09Z</time></trkpt><trkpt lat="43.09330372758479" lon="1.7213262145531434"><ele>293.0</ele><time>2026-04-02T06:53:10Z</time></trkpt><trkpt lat="43.0932931177167" lon="1.7214720681150437"><ele>293.0</ele><time>2026-04-02T06:53:11Z</time></trkpt><trkpt lat="43.09328109778912" lon="1.7216349615966364"><ele>292.75</ele><time>2026-04-02T06:53:12Z</time></trkpt><trkpt lat="43.093266027343056" lon="1.7218157857725493"><ele>292.5</ele><time>2026-04-02T06:53:13Z</time></trkpt><trkpt lat="43.09325176085151" lon="1.7219988562029949"><ele>292.25</ele><time>2026-04-02T06:53:14Z</time></trkpt><trkpt lat="43.09323709332276" lon="1.722170155515611"><ele>292.0</ele><time>2026-04-02T06:53:15Z</time></trkpt><trkpt lat="43.09322254455227" lon="1.722348877999478"><ele>292.0</ele><time>2026-04-02T06:53:16Z</time></trkpt><trkpt lat="43.093208721521464" lon="1.7225342255235299"><ele>292.0</ele><time>2026-04-02T06:53:17Z</time></trkpt><trkpt lat="43.09319570340407" lon="1.722720856668657"><ele>292.0</ele><time>2026-04-02T06:53:18Z</time></trkpt><trkpt lat="43.093182727229745" lon="1.722907921757294"><ele>292.0</ele><time>2026-04-02T06:53:19Z</time></trkpt><trkpt lat="43.09316824088385" lon="1.7230865838918747"><ele>292.0</ele><time>2026-04-02T06:53:20Z</time></trkpt><trkpt lat="43.09315633496118" lon="1.7232570243938847"><ele>292.0</ele><time>2026-04-02T06:53:21Z</time></trkpt><trkpt lat="43.093144391839196" lon="1.723417489771597"><ele>292.0</ele><time>2026-04-02T06:53:22Z</time></trkpt><trkpt lat="43.09313361693131" lon="1.723565648250682"><ele>292.0</ele><time>2026-04-02T06:53:23Z</time></trkpt><trkpt lat="43.093125378653426" lon="1.7237034084985297"><ele>292.2</ele><time>2026-04-02T06:53:24Z</time></trkpt><trkpt lat="43.0931146850576" lon="1.7238344834197044"><ele>292.4</ele><time>2026-04-02T06:53:25Z</time></trkpt><trkpt lat="43.09310770705073" lon="1.723957789624115"><ele>292.6</ele><time>2026-04-02T06:53:26Z</time></trkpt><trkpt lat="43.09309784332842" lon="1.7240920686075327"><ele>292.8</ele><time>2026-04-02T06:53:27Z</time></trkpt><trkpt lat="43.09308557341736" lon="1.7242292224497475"><ele>293.0</ele><time>2026-04-02T06:53:28Z</time></trkpt><trkpt lat="43.09307508461447" lon="1.7243762129066404"><ele>293.0</ele><time>2026-04-02T06:53:29Z</time></trkpt><trkpt lat="43.09306552178989" lon="1.724521674718048"><ele>293.0</ele><time>2026-04-02T06:53:30Z</time></trkpt><trkpt lat="43.09305237700916" lon="1.724656730262169"><ele>293.0</ele><time>2026-04-02T06:53:31Z</time></trkpt><trkpt lat="43.093043379699736" lon="1.7247800187597926"><ele>293.0</ele><time>2026-04-02T06:53:32Z</time></trkpt><trkpt lat="43.09303765103535" lon="1.724876429178545"><ele>293.0</ele><time>2026-04-02T06:53:33Z</time></trkpt><trkpt lat="43.0930234776455" lon="1.725026528384621"><ele>293.0</ele><time>2026-04-02T06:53:35Z</time></trkpt><trkpt lat="43.09302062400354" lon="1.7251533711118818"><ele>293.0</ele><time>2026-04-02T06:53:37Z</time></trkpt><trkpt lat="43.09310107373874" lon="1.7252499069112128"><ele>293.0</ele><time>2026-04-02T06:53:39Z</time></trkpt><trkpt lat="43.0931753024809" lon="1.7252859682406616"><ele>293.0</ele><time>2026-04-02T06:53:40Z</time></trkpt><trkpt lat="43.093251488293255" lon="1.7253231042970312"><ele>293.0</ele><time>2026-04-02T06:53:41Z</time></trkpt><trkpt lat="43.09334117473937" lon="1.7253661851548883"><ele>292.8</ele><time>2026-04-02T06:53:42Z</time></trkpt><trkpt lat="43.09342427863231" lon="1.7254149407438304"><ele>292.6</ele><time>2026-04-02T06:53:43Z</time></trkpt><trkpt lat="43.093510924259576" lon="1.7254692282164061"><ele>292.4</ele><time>2026-04-02T06:53:44Z</time></trkpt><trkpt lat="43.093588747827326" lon="1.7255326989352417"><ele>292.2</ele><time>2026-04-02T06:53:45Z</time></trkpt><trkpt lat="43.09367421163974" lon="1.7256132063699197"><ele>292.0</ele><time>2026-04-02T06:53:46Z</time></trkpt><trkpt lat="43.09375559242503" lon="1.7256997911235277"><ele>292.0</ele><time>2026-04-02T06:53:47Z</time></trkpt><trkpt lat="43.0938280022345" lon="1.7257805248175053"><ele>292.0</ele><time>2026-04-02T06:53:48Z</time></trkpt><trkpt lat="43.09390910525877" lon="1.7258351781732397"><ele>292.0</ele><time>2026-04-02T06:53:49Z</time></trkpt><trkpt lat="43.09400814778125" lon="1.7258493263930057"><ele>292.0</ele><time>2026-04-02T06:53:50Z</time></trkpt><trkpt lat="43.094115462426785" lon="1.7259377176113626"><ele>292.0</ele><time>2026-04-02T06:53:51Z</time></trkpt><trkpt lat="43.09423911246816" lon="1.7260423378252645"><ele>290.66666666666663</ele><time>2026-04-02T06:53:52Z</time></trkpt><trkpt lat="43.09436650566586" lon="1.7261551093498244"><ele>289.3333333333333</ele><time>2026-04-02T06:53:53Z</time></trkpt><trkpt lat="43.094486457732216" lon="1.7263027527630523"><ele>288.0</ele><time>2026-04-02T06:53:54Z</time></trkpt><trkpt lat="43.0946092665722" lon="1.7264622788906245"><ele>288.0</ele><time>2026-04-02T06:53:55Z</time></trkpt><trkpt lat="43.09472644285231" lon="1.7266290875424926"><ele>288.0</ele><time>2026-04-02T06:53:56Z</time></trkpt><trkpt lat="43.09483545480759" lon="1.7268132903937112"><ele>288.0</ele><time>2026-04-02T06:53:57Z</time></trkpt><trkpt lat="43.09493381614996" lon="1.7270086820695216"><ele>287.6666666666667</ele><time>2026-04-02T06:53:58Z</time></trkpt><trkpt lat="43.095023342437635" lon="1.727206083615786"><ele>287.33333333333337</ele><time>2026-04-02T06:53:59Z</time></trkpt><trkpt lat="43.095103492036856" lon="1.727415300266315"><ele>287.0</ele><time>2026-04-02T06:54:00Z</time></trkpt><trkpt lat="43.095141178051676" lon="1.7276477815838507"><ele>286.33333333333337</ele><time>2026-04-02T06:54:01Z</time></trkpt><trkpt lat="43.095210010882475" lon="1.7278684776721644"><ele>285.6666666666667</ele><time>2026-04-02T06:54:02Z</time></trkpt><trkpt lat="43.09528798057997" lon="1.7280957654368283"><ele>285.0</ele><time>2026-04-02T06:54:03Z</time></trkpt><trkpt lat="43.09538289100674" lon="1.7283253032811303"><ele>285.0</ele><time>2026-04-02T06:54:04Z</time></trkpt><trkpt lat="43.09547902119774" lon="1.7285568467596204"><ele>285.0</ele><time>2026-04-02T06:54:05Z</time></trkpt><trkpt lat="43.09557420570718" lon="1.7287919445627808"><ele>285.0</ele><time>2026-04-02T06:54:06Z</time></trkpt><trkpt lat="43.09567040071425" lon="1.7290401195805325"><ele>284.3333333333333</ele><time>2026-04-02T06:54:07Z</time></trkpt><trkpt lat="43.09576583193155" lon="1.7293039602513793"><ele>283.66666666666663</ele><time>2026-04-02T06:54:08Z</time></trkpt><trkpt lat="43.095849010515444" lon="1.7295761074828377"><ele>283.0</ele><time>2026-04-02T06:54:09Z</time></trkpt><trkpt lat="43.09592408749706" lon="1.7298498444150503"><ele>282.0</ele><time>2026-04-02T06:54:10Z</time></trkpt><trkpt lat="43.09599681216768" lon="1.7301245017909963"><ele>281.0</ele><time>2026-04-02T06:54:11Z</time></trkpt><trkpt lat="43.09606577390403" lon="1.7303989829275812"><ele>280.0</ele><time>2026-04-02T06:54:12Z</time></trkpt><trkpt lat="43.09612809914892" lon="1.7306786509141714"><ele>279.3333333333333</ele><time>2026-04-02T06:54:13Z</time></trkpt><trkpt lat="43.09618976259939" lon="1.7309605743932348"><ele>278.6666666666667</ele><time>2026-04-02T06:54:14Z</time></trkpt><trkpt lat="43.096254039300774" lon="1.7312478401481308"><ele>278.0</ele><time>2026-04-02T06:54:15Z</time></trkpt><trkpt lat="43.09631562465654" lon="1.7315453305578798"><ele>276.5</ele><time>2026-04-02T06:54:16Z</time></trkpt><trkpt lat="43.09637377783071" lon="1.7318625289796137"><ele>275.0</ele><time>2026-04-02T06:54:17Z</time></trkpt><trkpt lat="43.096443819451935" lon="1.7321657178556458"><ele>274.33333333333337</ele><time>2026-04-02T06:54:18Z</time></trkpt><trkpt lat="43.09650679396708" lon="1.7324395063189575"><ele>273.6666666666667</ele><time>2026-04-02T06:54:19Z</time></trkpt><trkpt lat="43.0965658956116" lon="1.7326990329759315"><ele>273.0</ele><time>2026-04-02T06:54:20Z</time></trkpt><trkpt lat="43.09662132419766" lon="1.7329693862514726"><ele>273.0</ele><time>2026-04-02T06:54:21Z</time></trkpt><trkpt lat="43.09667536362252" lon="1.7332364545516634"><ele>273.0</ele><time>2026-04-02T06:54:22Z</time></trkpt><trkpt lat="43.096724057260275" lon="1.7334794412248997"><ele>273.0</ele><time>2026-04-02T06:54:23Z</time></trkpt><trkpt lat="43.09677349110026" lon="1.7336883378429364"><ele>274.0</ele><time>2026-04-02T06:54:24Z</time></trkpt><trkpt lat="43.096813941582525" lon="1.7338638943019316"><ele>275.0</ele><time>2026-04-02T06:54:25Z</time></trkpt><trkpt lat="43.09685529962038" lon="1.734013262557308"><ele>276.0</ele><time>2026-04-02T06:54:26Z</time></trkpt><trkpt lat="43.096910043239" lon="1.7341333328916106"><ele>277.0</ele><time>2026-04-02T06:54:27Z</time></trkpt><trkpt lat="43.09698314496529" lon="1.734213423525928"><ele>278.0</ele><time>2026-04-02T06:54:28Z</time></trkpt><trkpt lat="43.09705033130215" lon="1.7342499100923066"><ele>278.0</ele><time>2026-04-02T06:54:29Z</time></trkpt><trkpt lat="43.097150350258254" lon="1.7343338051966786"><ele>278.0</ele><time>2026-04-02T06:54:31Z</time></trkpt><trkpt lat="43.097192100516466" lon="1.7344443145780541"><ele>278.0</ele><time>2026-04-02T06:54:32Z</time></trkpt><trkpt lat="43.09721044461685" lon="1.7346002263974998"><ele>278.0</ele><time>2026-04-02T06:54:33Z</time></trkpt><trkpt lat="43.09723303115737" lon="1.7347826403149464"><ele>278.25</ele><time>2026-04-02T06:54:34Z</time></trkpt><trkpt lat="43.09728756521451" lon="1.734951600064617"><ele>278.5</ele><time>2026-04-02T06:54:35Z</time></trkpt><trkpt lat="43.09734923129242" lon="1.7351283668073016"><ele>278.75</ele><time>2026-04-02T06:54:36Z</time></trkpt><trkpt lat="43.09738256266095" lon="1.735321173937542"><ele>279.0</ele><time>2026-04-02T06:54:37Z</time></trkpt><trkpt lat="43.09737789923897" lon="1.7355249141243287"><ele>279.0</ele><time>2026-04-02T06:54:38Z</time></trkpt><trkpt lat="43.09734561588665" lon="1.735729052871184"><ele>279.0</ele><time>2026-04-02T06:54:39Z</time></trkpt><trkpt lat="43.09730392156127" lon="1.7359337852082317"><ele>279.0</ele><time>2026-04-02T06:54:40Z</time></trkpt><trkpt lat="43.09726317637989" lon="1.7361374010990915"><ele>279.0</ele><time>2026-04-02T06:54:41Z</time></trkpt><trkpt lat="43.097231356509944" lon="1.736347636893037"><ele>279.0</ele><time>2026-04-02T06:54:42Z</time></trkpt><trkpt lat="43.0972111214075" lon="1.7365444428313894"><ele>279.0</ele><time>2026-04-02T06:54:43Z</time></trkpt><trkpt lat="43.09719977827934" lon="1.7367260585917366"><ele>279.0</ele><time>2026-04-02T06:54:44Z</time></trkpt><trkpt lat="43.09719452967454" lon="1.736899395067388"><ele>279.4</ele><time>2026-04-02T06:54:45Z</time></trkpt><trkpt lat="43.097188145792245" lon="1.73706304429709"><ele>279.79999999999995</ele><time>2026-04-02T06:54:46Z</time></trkpt><trkpt lat="43.09717946791289" lon="1.7372131844900458"><ele>280.20000000000005</ele><time>2026-04-02T06:54:47Z</time></trkpt><trkpt lat="43.097172398950384" lon="1.7373524027577771"><ele>280.6</ele><time>2026-04-02T06:54:48Z</time></trkpt><trkpt lat="43.09717012407394" lon="1.7374754729757969"><ele>281.0</ele><time>2026-04-02T06:54:49Z</time></trkpt><trkpt lat="43.09716795246979" lon="1.737569607665153"><ele>280.25</ele><time>2026-04-02T06:54:50Z</time></trkpt><trkpt lat="43.097150908180915" lon="1.7377619550248906"><ele>279.5</ele><time>2026-04-02T06:54:52Z</time></trkpt><trkpt lat="43.097115982823134" lon="1.7378869523137659"><ele>278.75</ele><time>2026-04-02T06:54:53Z</time></trkpt><trkpt lat="43.09706850640739" lon="1.7380146934880607"><ele>278.0</ele><time>2026-04-02T06:54:54Z</time></trkpt><trkpt lat="43.0970333387519" lon="1.7381525705551406"><ele>278.0</ele><time>2026-04-02T06:54:55Z</time></trkpt><trkpt lat="43.097003409157956" lon="1.738302406089072"><ele>278.0</ele><time>2026-04-02T06:54:56Z</time></trkpt><trkpt lat="43.09698054474649" lon="1.7384648972796006"><ele>278.0</ele><time>2026-04-02T06:54:57Z</time></trkpt><trkpt lat="43.09694467623103" lon="1.73863080460984"><ele>278.0</ele><time>2026-04-02T06:54:58Z</time></trkpt><trkpt lat="43.096906974089606" lon="1.738805925898333"><ele>277.0</ele><time>2026-04-02T06:54:59Z</time></trkpt><trkpt lat="43.096899006295075" lon="1.7389945673996154"><ele>276.0</ele><time>2026-04-02T06:55:00Z</time></trkpt><trkpt lat="43.09689948613573" lon="1.7391898803424408"><ele>275.0</ele><time>2026-04-02T06:55:01Z</time></trkpt><trkpt lat="43.09690610529574" lon="1.7393797660720025"><ele>274.0</ele><time>2026-04-02T06:55:02Z</time></trkpt><trkpt lat="43.09690925446037" lon="1.739571638276264"><ele>273.25</ele><time>2026-04-02T06:55:03Z</time></trkpt><trkpt lat="43.09691548525984" lon="1.7397628187281722"><ele>272.5</ele><time>2026-04-02T06:55:04Z</time></trkpt><trkpt lat="43.096926896795395" lon="1.7399526305312265"><ele>271.75</ele><time>2026-04-02T06:55:05Z</time></trkpt><trkpt lat="43.096934920762905" lon="1.7401424329463435"><ele>271.0</ele><time>2026-04-02T06:55:06Z</time></trkpt><trkpt lat="43.09694930642238" lon="1.7403396413871182"><ele>270.66666666666663</ele><time>2026-04-02T06:55:07Z</time></trkpt><trkpt lat="43.09698514825754" lon="1.7405475339913759"><ele>270.3333333333333</ele><time>2026-04-02T06:55:08Z</time></trkpt><trkpt lat="43.09705108936946" lon="1.740747686721909"><ele>270.0</ele><time>2026-04-02T06:55:09Z</time></trkpt><trkpt lat="43.09714324333163" lon="1.7409455904018978"><ele>269.0</ele><time>2026-04-02T06:55:10Z</time></trkpt><trkpt lat="43.09723224497878" lon="1.7411152983672162"><ele>268.0</ele><time>2026-04-02T06:55:11Z</time></trkpt><trkpt lat="43.097291383048315" lon="1.7412872314405896"><ele>267.0</ele><time>2026-04-02T06:55:12Z</time></trkpt><trkpt lat="43.097316663616674" lon="1.7414748660855077"><ele>266.0</ele><time>2026-04-02T06:55:13Z</time></trkpt><trkpt lat="43.09732156773294" lon="1.7416809001591076"><ele>266.0</ele><time>2026-04-02T06:55:14Z</time></trkpt><trkpt lat="43.097271967814976" lon="1.7418760259922434"><ele>266.0</ele><time>2026-04-02T06:55:15Z</time></trkpt><trkpt lat="43.09720368448004" lon="1.7420659416407176"><ele>266.0</ele><time>2026-04-02T06:55:16Z</time></trkpt><trkpt lat="43.09712729253434" lon="1.7422583891200716"><ele>265.6666666666667</ele><time>2026-04-02T06:55:17Z</time></trkpt><trkpt lat="43.097064517805656" lon="1.7424649266125123"><ele>265.3333333333333</ele><time>2026-04-02T06:55:18Z</time></trkpt><trkpt lat="43.096986166813814" lon="1.742660742677603"><ele>265.0</ele><time>2026-04-02T06:55:19Z</time></trkpt><trkpt lat="43.096943896208835" lon="1.742871332267305"><ele>264.66666666666663</ele><time>2026-04-02T06:55:20Z</time></trkpt><trkpt lat="43.09694989501281" lon="1.743092754413276"><ele>264.3333333333333</ele><time>2026-04-02T06:55:21Z</time></trkpt><trkpt lat="43.09699742618968" lon="1.7433046685698266"><ele>264.0</ele><time>2026-04-02T06:55:22Z</time></trkpt><trkpt lat="43.09707106596892" lon="1.743521321947645"><ele>263.6666666666667</ele><time>2026-04-02T06:55:23Z</time></trkpt><trkpt lat="43.09714997989225" lon="1.7437668380222655"><ele>263.33333333333337</ele><time>2026-04-02T06:55:24Z</time></trkpt><trkpt lat="43.09722522077234" lon="1.7440205217090934"><ele>263.0</ele><time>2026-04-02T06:55:25Z</time></trkpt><trkpt lat="43.097294977117286" lon="1.744267150160457"><ele>263.0</ele><time>2026-04-02T06:55:26Z</time></trkpt><trkpt lat="43.09736436614673" lon="1.7445005509151092"><ele>263.0</ele><time>2026-04-02T06:55:27Z</time></trkpt><trkpt lat="43.0974374768229" lon="1.7446990107580362"><ele>263.0</ele><time>2026-04-02T06:55:28Z</time></trkpt><trkpt lat="43.097539538800255" lon="1.7448537280756111"><ele>262.75</ele><time>2026-04-02T06:55:29Z</time></trkpt><trkpt lat="43.09765854482587" lon="1.7449797857451141"><ele>262.5</ele><time>2026-04-02T06:55:30Z</time></trkpt><trkpt lat="43.09775873723384" lon="1.745079288799414"><ele>262.25</ele><time>2026-04-02T06:55:31Z</time></trkpt><trkpt lat="43.09783449298163" lon="1.7451726218490062"><ele>262.0</ele><time>2026-04-02T06:55:32Z</time></trkpt><trkpt lat="43.09790444411676" lon="1.745268659515422"><ele>262.75</ele><time>2026-04-02T06:55:33Z</time></trkpt><trkpt lat="43.09798681537643" lon="1.7453794980324298"><ele>263.5</ele><time>2026-04-02T06:55:34Z</time></trkpt><trkpt lat="43.09807732981335" lon="1.7455077807470774"><ele>264.25</ele><time>2026-04-02T06:55:35Z</time></trkpt><trkpt lat="43.098182556121806" lon="1.7456575021681235"><ele>265.0</ele><time>2026-04-02T06:55:36Z</time></trkpt><trkpt lat="43.09830960320876" lon="1.7458238916225282"><ele>265.3333333333333</ele><time>2026-04-02T06:55:37Z</time></trkpt><trkpt lat="43.098447562666856" lon="1.7459931351926756"><ele>265.6666666666667</ele><time>2026-04-02T06:55:38Z</time></trkpt><trkpt lat="43.09857598854174" lon="1.74616214216876"><ele>266.0</ele><time>2026-04-02T06:55:39Z</time></trkpt><trkpt lat="43.098702433085606" lon="1.746331825231234"><ele>266.0</ele><time>2026-04-02T06:55:40Z</time></trkpt><trkpt lat="43.09882806211868" lon="1.7465008374229603"><ele>266.0</ele><time>2026-04-02T06:55:41Z</time></trkpt><trkpt lat="43.098953305685434" lon="1.746668147307604"><ele>266.0</ele><time>2026-04-02T06:55:42Z</time></trkpt><trkpt lat="43.0990826771299" lon="1.7468325869783181"><ele>265.33333333333337</ele><time>2026-04-02T06:55:43Z</time></trkpt><trkpt lat="43.099206138143565" lon="1.7469900337415745"><ele>264.6666666666667</ele><time>2026-04-02T06:55:44Z</time></trkpt><trkpt lat="43.09932731432462" lon="1.747144375972485"><ele>264.0</ele><time>2026-04-02T06:55:45Z</time></trkpt><trkpt lat="43.099440934301626" lon="1.7472951319924865"><ele>264.0</ele><time>2026-04-02T06:55:46Z</time></trkpt><trkpt lat="43.09954864688711" lon="1.7474431617253996"><ele>264.0</ele><time>2026-04-02T06:55:47Z</time></trkpt><trkpt lat="43.099649929433035" lon="1.7475719835495676"><ele>264.0</ele><time>2026-04-02T06:55:48Z</time></trkpt><trkpt lat="43.09974133993566" lon="1.7477171231367883"><ele>264.0</ele><time>2026-04-02T06:55:49Z</time></trkpt><trkpt lat="43.09980520457438" lon="1.747904269762235"><ele>264.0</ele><time>2026-04-02T06:55:50Z</time></trkpt><trkpt lat="43.09979394822101" lon="1.7481151401123296"><ele>264.0</ele><time>2026-04-02T06:55:51Z</time></trkpt><trkpt lat="43.099778503801765" lon="1.7483370644466856"><ele>264.0</ele><time>2026-04-02T06:55:52Z</time></trkpt><trkpt lat="43.099761626366174" lon="1.748573215561146"><ele>264.3333333333333</ele><time>2026-04-02T06:55:53Z</time></trkpt><trkpt lat="43.099750070105024" lon="1.7488270685203686"><ele>264.66666666666663</ele><time>2026-04-02T06:55:54Z</time></trkpt><trkpt lat="43.09971613868808" lon="1.7490752964050154"><ele>265.0</ele><time>2026-04-02T06:55:55Z</time></trkpt><trkpt lat="43.099677322533886" lon="1.749329503445997"><ele>264.3333333333333</ele><time>2026-04-02T06:55:56Z</time></trkpt><trkpt lat="43.099624055141675" lon="1.749574710224941"><ele>263.6666666666667</ele><time>2026-04-02T06:55:57Z</time></trkpt><trkpt lat="43.09955890549283" lon="1.7498160083917613"><ele>263.0</ele><time>2026-04-02T06:55:58Z</time></trkpt><trkpt lat="43.09949610693075" lon="1.7500494334760923"><ele>263.33333333333337</ele><time>2026-04-02T06:55:59Z</time></trkpt><trkpt lat="43.09943656362883" lon="1.7502689789817134"><ele>263.6666666666667</ele><time>2026-04-02T06:56:00Z</time></trkpt><trkpt lat="43.09936625657049" lon="1.75049204027067"><ele>264.0</ele><time>2026-04-02T06:56:01Z</time></trkpt><trkpt lat="43.09925046506418" lon="1.7506915080320884"><ele>264.0</ele><time>2026-04-02T06:56:02Z</time></trkpt><trkpt lat="43.09912452711894" lon="1.7508855752823544"><ele>264.0</ele><time>2026-04-02T06:56:03Z</time></trkpt><trkpt lat="43.09899676411206" lon="1.751086550910804"><ele>264.0</ele><time>2026-04-02T06:56:04Z</time></trkpt><trkpt lat="43.0988601752957" lon="1.751283612417889"><ele>263.6666666666667</ele><time>2026-04-02T06:56:05Z</time></trkpt><trkpt lat="43.09872550759839" lon="1.751492683819333"><ele>263.33333333333337</ele><time>2026-04-02T06:56:06Z</time></trkpt><trkpt lat="43.09859004863811" lon="1.751696011703727"><ele>263.0</ele><time>2026-04-02T06:56:07Z</time></trkpt><trkpt lat="43.09845093493986" lon="1.75189837874529"><ele>263.6666666666667</ele><time>2026-04-02T06:56:08Z</time></trkpt><trkpt lat="43.098312186253075" lon="1.75210324785702"><ele>264.3333333333333</ele><time>2026-04-02T06:56:09Z</time></trkpt><trkpt lat="43.09817550894125" lon="1.7523093948348065"><ele>265.0</ele><time>2026-04-02T06:56:10Z</time></trkpt><trkpt lat="43.0980367990967" lon="1.752517287278534"><ele>265.0</ele><time>2026-04-02T06:56:11Z</time></trkpt><trkpt lat="43.09789746550962" lon="1.7527194161325137"><ele>265.0</ele><time>2026-04-02T06:56:12Z</time></trkpt><trkpt lat="43.097766447867336" lon="1.7529147956882527"><ele>265.0</ele><time>2026-04-02T06:56:13Z</time></trkpt><trkpt lat="43.097643284326246" lon="1.7531068073466707"><ele>265.0</ele><time>2026-04-02T06:56:14Z</time></trkpt><trkpt lat="43.097523270264546" lon="1.753302170645051"><ele>265.0</ele><time>2026-04-02T06:56:15Z</time></trkpt><trkpt lat="43.09739608140432" lon="1.7535137152690854"><ele>265.0</ele><time>2026-04-02T06:56:16Z</time></trkpt><trkpt lat="43.097266872045" lon="1.7537319721341504"><ele>265.3333333333333</ele><time>2026-04-02T06:56:17Z</time></trkpt><trkpt lat="43.09713947967242" lon="1.7539614912468613"><ele>265.6666666666667</ele><time>2026-04-02T06:56:18Z</time></trkpt><trkpt lat="43.09700657841265" lon="1.7541986886994845"><ele>266.0</ele><time>2026-04-02T06:56:19Z</time></trkpt><trkpt lat="43.096869949389934" lon="1.7544359898829591"><ele>266.0</ele><time>2026-04-02T06:56:20Z</time></trkpt><trkpt lat="43.09673389708817" lon="1.7546619090323479"><ele>266.0</ele><time>2026-04-02T06:56:21Z</time></trkpt><trkpt lat="43.09660017233194" lon="1.7548856819747576"><ele>266.0</ele><time>2026-04-02T06:56:22Z</time></trkpt><trkpt lat="43.09647108087397" lon="1.7551099320690744"><ele>266.33333333333337</ele><time>2026-04-02T06:56:23Z</time></trkpt><trkpt lat="43.09635435524718" lon="1.7553408588744093"><ele>266.6666666666667</ele><time>2026-04-02T06:56:24Z</time></trkpt><trkpt lat="43.09626643168146" lon="1.7555898089794082"><ele>267.0</ele><time>2026-04-02T06:56:25Z</time></trkpt><trkpt lat="43.096207314149794" lon="1.7558474033547384"><ele>267.0</ele><time>2026-04-02T06:56:26Z</time></trkpt><trkpt lat="43.096146822463915" lon="1.7561106783923919"><ele>267.0</ele><time>2026-04-02T06:56:27Z</time></trkpt><trkpt lat="43.09609829093386" lon="1.7563629745339058"><ele>267.0</ele><time>2026-04-02T06:56:28Z</time></trkpt><trkpt lat="43.09608857269776" lon="1.7566210893022385"><ele>267.0</ele><time>2026-04-02T06:56:29Z</time></trkpt><trkpt lat="43.09611860638741" lon="1.7568805989262433"><ele>267.0</ele><time>2026-04-02T06:56:30Z</time></trkpt><trkpt lat="43.096157687389024" lon="1.7571410027679615"><ele>267.0</ele><time>2026-04-02T06:56:31Z</time></trkpt><trkpt lat="43.096197181081024" lon="1.7574047212181536"><ele>267.0</ele><time>2026-04-02T06:56:32Z</time></trkpt><trkpt lat="43.09623239893142" lon="1.7576638454562226"><ele>267.0</ele><time>2026-04-02T06:56:33Z</time></trkpt><trkpt lat="43.09625522437572" lon="1.7578930900270324"><ele>267.0</ele><time>2026-04-02T06:56:34Z</time></trkpt><trkpt lat="43.09626761768652" lon="1.7580787223100487"><ele>267.25</ele><time>2026-04-02T06:56:35Z</time></trkpt><trkpt lat="43.09623267129316" lon="1.7582364610943868"><ele>267.5</ele><time>2026-04-02T06:56:36Z</time></trkpt><trkpt lat="43.0961648698507" lon="1.7583670984169166"><ele>267.75</ele><time>2026-04-02T06:56:37Z</time></trkpt><trkpt lat="43.09607983111269" lon="1.7585029711049585"><ele>268.0</ele><time>2026-04-02T06:56:38Z</time></trkpt><trkpt lat="43.09600250823508" lon="1.758654155888657"><ele>267.75</ele><time>2026-04-02T06:56:39Z</time></trkpt><trkpt lat="43.09593706222878" lon="1.7587598666569728"><ele>267.5</ele><time>2026-04-02T06:56:40Z</time></trkpt><trkpt lat="43.09590037410006" lon="1.7588407059575322"><ele>267.25</ele><time>2026-04-02T06:56:41Z</time></trkpt><trkpt lat="43.09579519448345" lon="1.7589892159134877"><ele>267.0</ele><time>2026-04-02T06:56:43Z</time></trkpt><trkpt lat="43.09568884610629" lon="1.7590942631910185"><ele>267.0</ele><time>2026-04-02T06:56:44Z</time></trkpt><trkpt lat="43.09558624594037" lon="1.7592140122694337"><ele>267.0</ele><time>2026-04-02T06:56:45Z</time></trkpt><trkpt lat="43.09547569698201" lon="1.759358999972477"><ele>267.0</ele><time>2026-04-02T06:56:46Z</time></trkpt><trkpt lat="43.09537572682236" lon="1.7594895278120597"><ele>267.0</ele><time>2026-04-02T06:56:47Z</time></trkpt><trkpt lat="43.0952893234617" lon="1.7595986210663113"><ele>267.25</ele><time>2026-04-02T06:56:48Z</time></trkpt><trkpt lat="43.09521058795211" lon="1.7596937171247085"><ele>267.5</ele><time>2026-04-02T06:56:49Z</time></trkpt><trkpt lat="43.0951300201778" lon="1.7597906894226196"><ele>267.75</ele><time>2026-04-02T06:56:50Z</time></trkpt><trkpt lat="43.09503710340646" lon="1.759909568129538"><ele>268.0</ele><time>2026-04-02T06:56:51Z</time></trkpt><trkpt lat="43.09494332379759" lon="1.7600474133937383"><ele>268.25</ele><time>2026-04-02T06:56:52Z</time></trkpt><trkpt lat="43.09485177971256" lon="1.760186428427388"><ele>268.5</ele><time>2026-04-02T06:56:53Z</time></trkpt><trkpt lat="43.09474827943752" lon="1.760326956702963"><ele>268.75</ele><time>2026-04-02T06:56:54Z</time></trkpt><trkpt lat="43.09463864805205" lon="1.760478010823534"><ele>269.0</ele><time>2026-04-02T06:56:55Z</time></trkpt><trkpt lat="43.094524697204456" lon="1.7606273989331274"><ele>269.0</ele><time>2026-04-02T06:56:56Z</time></trkpt><trkpt lat="43.09440821856848" lon="1.760765647751157"><ele>269.0</ele><time>2026-04-02T06:56:57Z</time></trkpt><trkpt lat="43.09429538119117" lon="1.7609103785862958"><ele>269.0</ele><time>2026-04-02T06:56:58Z</time></trkpt><trkpt lat="43.094174100511275" lon="1.7610301689472194"><ele>268.6666666666667</ele><time>2026-04-02T06:56:59Z</time></trkpt><trkpt lat="43.094061814440444" lon="1.7611819652782947"><ele>268.3333333333333</ele><time>2026-04-02T06:57:00Z</time></trkpt><trkpt lat="43.09396857894651" lon="1.761360668219346"><ele>268.0</ele><time>2026-04-02T06:57:01Z</time></trkpt><trkpt lat="43.09387402264514" lon="1.7615722363699617"><ele>268.0</ele><time>2026-04-02T06:57:02Z</time></trkpt><trkpt lat="43.09381518724972" lon="1.761840363197585"><ele>268.0</ele><time>2026-04-02T06:57:03Z</time></trkpt><trkpt lat="43.09368167728646" lon="1.7620808859565633"><ele>268.0</ele><time>2026-04-02T06:57:04Z</time></trkpt><trkpt lat="43.0935453113789" lon="1.7623264384064024"><ele>269.0</ele><time>2026-04-02T06:57:05Z</time></trkpt><trkpt lat="43.09341191105345" lon="1.7625920272771847"><ele>270.0</ele><time>2026-04-02T06:57:06Z</time></trkpt><trkpt lat="43.093271573055496" lon="1.762863598620414"><ele>268.5</ele><time>2026-04-02T06:57:07Z</time></trkpt><trkpt lat="43.09315484105257" lon="1.7631624795829137"><ele>267.0</ele><time>2026-04-02T06:57:08Z</time></trkpt><trkpt lat="43.09302988039767" lon="1.7634611288269315"><ele>267.5</ele><time>2026-04-02T06:57:09Z</time></trkpt><trkpt lat="43.0929002379732" lon="1.7637700057292833"><ele>268.0</ele><time>2026-04-02T06:57:10Z</time></trkpt><trkpt lat="43.092772352064024" lon="1.76406455460208"><ele>268.0</ele><time>2026-04-02T06:57:11Z</time></trkpt><trkpt lat="43.092640403974514" lon="1.7643566442113034"><ele>268.0</ele><time>2026-04-02T06:57:12Z</time></trkpt><trkpt lat="43.09250146602093" lon="1.7646355113241863"><ele>268.5</ele><time>2026-04-02T06:57:13Z</time></trkpt><trkpt lat="43.092355066180744" lon="1.764903162000704"><ele>269.0</ele><time>2026-04-02T06:57:14Z</time></trkpt><trkpt lat="43.09221086054544" lon="1.765159028065523"><ele>270.5</ele><time>2026-04-02T06:57:15Z</time></trkpt><trkpt lat="43.092069954655685" lon="1.7654123519936689"><ele>272.0</ele><time>2026-04-02T06:57:16Z</time></trkpt><trkpt lat="43.091931294798535" lon="1.7656457027627124"><ele>272.0</ele><time>2026-04-02T06:57:17Z</time></trkpt><trkpt lat="43.091792954248476" lon="1.7658798247767378"><ele>272.0</ele><time>2026-04-02T06:57:18Z</time></trkpt><trkpt lat="43.09165744209941" lon="1.7661278898805175"><ele>272.0</ele><time>2026-04-02T06:57:19Z</time></trkpt><trkpt lat="43.09152692145091" lon="1.766372884340713"><ele>272.6666666666667</ele><time>2026-04-02T06:57:20Z</time></trkpt><trkpt lat="43.09141522765138" lon="1.7666258469195342"><ele>273.3333333333333</ele><time>2026-04-02T06:57:21Z</time></trkpt><trkpt lat="43.09133969795686" lon="1.7668963263393673"><ele>274.0</ele><time>2026-04-02T06:57:22Z</time></trkpt><trkpt lat="43.0912994980451" lon="1.7671774836595786"><ele>274.0</ele><time>2026-04-02T06:57:23Z</time></trkpt><trkpt lat="43.0912798882634" lon="1.7674598190954753"><ele>274.0</ele><time>2026-04-02T06:57:24Z</time></trkpt><trkpt lat="43.091248517572545" lon="1.7677306910183557"><ele>274.0</ele><time>2026-04-02T06:57:25Z</time></trkpt><trkpt lat="43.091163550439994" lon="1.7679928862246375"><ele>273.66666666666663</ele><time>2026-04-02T06:57:26Z</time></trkpt><trkpt lat="43.091059203521986" lon="1.768252113580002"><ele>273.3333333333333</ele><time>2026-04-02T06:57:27Z</time></trkpt><trkpt lat="43.09098062367627" lon="1.768532672617347"><ele>273.0</ele><time>2026-04-02T06:57:28Z</time></trkpt><trkpt lat="43.090910505637254" lon="1.768815360611596"><ele>273.6666666666667</ele><time>2026-04-02T06:57:29Z</time></trkpt><trkpt lat="43.09089143793544" lon="1.7691046703075326"><ele>274.33333333333337</ele><time>2026-04-02T06:57:30Z</time></trkpt><trkpt lat="43.09090543275229" lon="1.7693690938324156"><ele>275.0</ele><time>2026-04-02T06:57:31Z</time></trkpt><trkpt lat="43.09091402013329" lon="1.7696183823107552"><ele>275.0</ele><time>2026-04-02T06:57:32Z</time></trkpt><trkpt lat="43.09089890945348" lon="1.7698765777468142"><ele>275.0</ele><time>2026-04-02T06:57:33Z</time></trkpt><trkpt lat="43.09083907018321" lon="1.7701308575238026"><ele>275.0</ele><time>2026-04-02T06:57:34Z</time></trkpt><trkpt lat="43.090771463365506" lon="1.7703903832698327"><ele>273.6666666666667</ele><time>2026-04-02T06:57:35Z</time></trkpt><trkpt lat="43.090702965362865" lon="1.770651882411613"><ele>272.3333333333333</ele><time>2026-04-02T06:57:36Z</time></trkpt><trkpt lat="43.09064384917647" lon="1.7709231478274998"><ele>271.0</ele><time>2026-04-02T06:57:37Z</time></trkpt><trkpt lat="43.09057005837695" lon="1.771188028011047"><ele>271.0</ele><time>2026-04-02T06:57:38Z</time></trkpt><trkpt lat="43.09050688638404" lon="1.7714585025407061"><ele>271.0</ele><time>2026-04-02T06:57:39Z</time></trkpt><trkpt lat="43.090459026032484" lon="1.7717292063171903"><ele>271.0</ele><time>2026-04-02T06:57:40Z</time></trkpt><trkpt lat="43.09042314512274" lon="1.7720107260966544"><ele>271.66666666666663</ele><time>2026-04-02T06:57:41Z</time></trkpt><trkpt lat="43.090386714651714" lon="1.7723096212721172"><ele>272.3333333333333</ele><time>2026-04-02T06:57:42Z</time></trkpt><trkpt lat="43.090350434351095" lon="1.772597797646296"><ele>273.0</ele><time>2026-04-02T06:57:43Z</time></trkpt><trkpt lat="43.09031647028131" lon="1.7728664863560415"><ele>273.0</ele><time>2026-04-02T06:57:44Z</time></trkpt><trkpt lat="43.090283121262985" lon="1.7731007059002157"><ele>273.0</ele><time>2026-04-02T06:57:45Z</time></trkpt><trkpt lat="43.09025976940878" lon="1.7733285984352456"><ele>273.0</ele><time>2026-04-02T06:57:46Z</time></trkpt><trkpt lat="43.090272007516056" lon="1.7735827381315452"><ele>273.0</ele><time>2026-04-02T06:57:47Z</time></trkpt><trkpt lat="43.09029486225023" lon="1.77386061840285"><ele>273.0</ele><time>2026-04-02T06:57:48Z</time></trkpt><trkpt lat="43.090311014823776" lon="1.7741252076122567"><ele>273.0</ele><time>2026-04-02T06:57:49Z</time></trkpt><trkpt lat="43.09032688961647" lon="1.7743807382555548"><ele>273.0</ele><time>2026-04-02T06:57:50Z</time></trkpt><trkpt lat="43.09035756485272" lon="1.7746260142036339"><ele>273.0</ele><time>2026-04-02T06:57:51Z</time></trkpt><trkpt lat="43.090427648479704" lon="1.774868863447098"><ele>273.0</ele><time>2026-04-02T06:57:52Z</time></trkpt><trkpt lat="43.090529649155606" lon="1.7751117231745284"><ele>272.6666666666667</ele><time>2026-04-02T06:57:53Z</time></trkpt><trkpt lat="43.09063970474564" lon="1.775356499491678"><ele>272.33333333333337</ele><time>2026-04-02T06:57:54Z</time></trkpt><trkpt lat="43.090749299815734" lon="1.775600109262501"><ele>272.0</ele><time>2026-04-02T06:57:55Z</time></trkpt><trkpt lat="43.09084354480795" lon="1.7758261352637061"><ele>272.6666666666667</ele><time>2026-04-02T06:57:56Z</time></trkpt><trkpt lat="43.090920955763806" lon="1.7760316077161205"><ele>273.3333333333333</ele><time>2026-04-02T06:57:57Z</time></trkpt><trkpt lat="43.09099764217179" lon="1.7762084120758157"><ele>274.0</ele><time>2026-04-02T06:57:58Z</time></trkpt><trkpt lat="43.09106534723518" lon="1.7764367232130254"><ele>274.0</ele><time>2026-04-02T06:57:59Z</time></trkpt><trkpt lat="43.09110794255523" lon="1.7766773213726579"><ele>274.0</ele><time>2026-04-02T06:58:00Z</time></trkpt><trkpt lat="43.09113020498528" lon="1.7768936688074342"><ele>274.0</ele><time>2026-04-02T06:58:01Z</time></trkpt><trkpt lat="43.09116071256079" lon="1.7770971924871988"><ele>273.75</ele><time>2026-04-02T06:58:02Z</time></trkpt><trkpt lat="43.09117698758757" lon="1.777302079924347"><ele>273.5</ele><time>2026-04-02T06:58:03Z</time></trkpt><trkpt lat="43.09119764859383" lon="1.7775075202595505"><ele>273.25</ele><time>2026-04-02T06:58:04Z</time></trkpt><trkpt lat="43.09121425357448" lon="1.7777007237111522"><ele>273.0</ele><time>2026-04-02T06:58:05Z</time></trkpt><trkpt lat="43.091224372836535" lon="1.7778738723037042"><ele>274.0</ele><time>2026-04-02T06:58:06Z</time></trkpt><trkpt lat="43.09120239101075" lon="1.7780141808044858"><ele>275.0</ele><time>2026-04-02T06:58:07Z</time></trkpt><trkpt lat="43.09118811137173" lon="1.7781314443797778"><ele>276.0</ele><time>2026-04-02T06:58:08Z</time></trkpt><trkpt lat="43.09119093021712" lon="1.7782190138628116"><ele>277.0</ele><time>2026-04-02T06:58:09Z</time></trkpt><trkpt lat="43.09111927551945" lon="1.7782772288514943"><ele>278.0</ele><time>2026-04-02T06:58:11Z</time></trkpt><trkpt lat="43.09098009805909" lon="1.7782207707558955"><ele>278.0</ele><time>2026-04-02T06:58:13Z</time></trkpt><trkpt lat="43.09085884652736" lon="1.7781865856901693"><ele>278.0</ele><time>2026-04-02T06:58:14Z</time></trkpt><trkpt lat="43.09071079583369" lon="1.778162997442606"><ele>278.0</ele><time>2026-04-02T06:58:15Z</time></trkpt><trkpt lat="43.090547694469386" lon="1.7781125542854361"><ele>278.0</ele><time>2026-04-02T06:58:16Z</time></trkpt><trkpt lat="43.09037928687493" lon="1.778073695961485"><ele>277.6666666666667</ele><time>2026-04-02T06:58:17Z</time></trkpt><trkpt lat="43.090217715909056" lon="1.7780393696869163"><ele>277.3333333333333</ele><time>2026-04-02T06:58:18Z</time></trkpt><trkpt lat="43.0900435680134" lon="1.7779963240278256"><ele>277.0</ele><time>2026-04-02T06:58:19Z</time></trkpt><trkpt lat="43.08986215767219" lon="1.777950883123762"><ele>277.0</ele><time>2026-04-02T06:58:20Z</time></trkpt><trkpt lat="43.08967997367154" lon="1.7779088732846595"><ele>277.0</ele><time>2026-04-02T06:58:21Z</time></trkpt><trkpt lat="43.08949399285345" lon="1.7778688955001865"><ele>277.0</ele><time>2026-04-02T06:58:22Z</time></trkpt><trkpt lat="43.08931053142591" lon="1.7778224464433705"><ele>277.0</ele><time>2026-04-02T06:58:23Z</time></trkpt><trkpt lat="43.08912443887253" lon="1.7777812175872507"><ele>277.0</ele><time>2026-04-02T06:58:24Z</time></trkpt><trkpt lat="43.08896330707697" lon="1.7777548337791036"><ele>277.0</ele><time>2026-04-02T06:58:25Z</time></trkpt><trkpt lat="43.08880496859892" lon="1.7777636748871175"><ele>276.0</ele><time>2026-04-02T06:58:26Z</time></trkpt><trkpt lat="43.08864468329285" lon="1.7778178754710516"><ele>275.0</ele><time>2026-04-02T06:58:27Z</time></trkpt><trkpt lat="43.08847887484535" lon="1.777926020714688"><ele>274.0</ele><time>2026-04-02T06:58:28Z</time></trkpt><trkpt lat="43.08832997635991" lon="1.778095727673299"><ele>274.0</ele><time>2026-04-02T06:58:29Z</time></trkpt><trkpt lat="43.08819872527336" lon="1.778301637295502"><ele>274.0</ele><time>2026-04-02T06:58:30Z</time></trkpt><trkpt lat="43.08807136656282" lon="1.7785032634814613"><ele>274.0</ele><time>2026-04-02T06:58:31Z</time></trkpt><trkpt lat="43.08795248807125" lon="1.778674563116032"><ele>274.0</ele><time>2026-04-02T06:58:32Z</time></trkpt><trkpt lat="43.08785009973025" lon="1.7788451776260334"><ele>274.0</ele><time>2026-04-02T06:58:33Z</time></trkpt><trkpt lat="43.08778257585164" lon="1.7790622033622197"><ele>274.0</ele><time>2026-04-02T06:58:34Z</time></trkpt><trkpt lat="43.08774558251863" lon="1.7793283882974456"><ele>274.0</ele><time>2026-04-02T06:58:35Z</time></trkpt><trkpt lat="43.08772544275729" lon="1.7796175162828805"><ele>274.0</ele><time>2026-04-02T06:58:36Z</time></trkpt><trkpt lat="43.08770635897911" lon="1.7799149650311372"><ele>274.0</ele><time>2026-04-02T06:58:37Z</time></trkpt><trkpt lat="43.08767941939685" lon="1.7802106185886493"><ele>274.3333333333333</ele><time>2026-04-02T06:58:38Z</time></trkpt><trkpt lat="43.08765246489587" lon="1.780513563973965"><ele>274.6666666666667</ele><time>2026-04-02T06:58:39Z</time></trkpt><trkpt lat="43.087626123963055" lon="1.7807989799272146"><ele>275.0</ele><time>2026-04-02T06:58:40Z</time></trkpt><trkpt lat="43.08759765345186" lon="1.7810883508933923"><ele>275.33333333333337</ele><time>2026-04-02T06:58:41Z</time></trkpt><trkpt lat="43.08756854880069" lon="1.7813777537899984"><ele>275.6666666666667</ele><time>2026-04-02T06:58:42Z</time></trkpt><trkpt lat="43.08754271443345" lon="1.7816622245013884"><ele>276.0</ele><time>2026-04-02T06:58:43Z</time></trkpt><trkpt lat="43.08751848821915" lon="1.7819469473549712"><ele>274.6666666666667</ele><time>2026-04-02T06:58:44Z</time></trkpt><trkpt lat="43.08749104307491" lon="1.7822268556693044"><ele>273.33333333333337</ele><time>2026-04-02T06:58:45Z</time></trkpt><trkpt lat="43.08745665770115" lon="1.7825042730403253"><ele>272.0</ele><time>2026-04-02T06:58:46Z</time></trkpt><trkpt lat="43.08736066112497" lon="1.7827411768783703"><ele>272.0</ele><time>2026-04-02T06:58:47Z</time></trkpt><trkpt lat="43.08723579055163" lon="1.7829482269445907"><ele>272.0</ele><time>2026-04-02T06:58:48Z</time></trkpt><trkpt lat="43.08710346355694" lon="1.7831629144588588"><ele>272.0</ele><time>2026-04-02T06:58:49Z</time></trkpt><trkpt lat="43.08697183681589" lon="1.7833855903457962"><ele>274.33333333333337</ele><time>2026-04-02T06:58:50Z</time></trkpt><trkpt lat="43.08684285670529" lon="1.7835820198255503"><ele>276.6666666666667</ele><time>2026-04-02T06:58:51Z</time></trkpt><trkpt lat="43.08673259136266" lon="1.7837673624192583"><ele>279.0</ele><time>2026-04-02T06:58:52Z</time></trkpt><trkpt lat="43.08663777672244" lon="1.7839355456542936"><ele>278.2</ele><time>2026-04-02T06:58:53Z</time></trkpt><trkpt lat="43.08656864521408" lon="1.7840796469669238"><ele>277.4</ele><time>2026-04-02T06:58:54Z</time></trkpt><trkpt lat="43.08651367889248" lon="1.784208639069028"><ele>276.6</ele><time>2026-04-02T06:58:55Z</time></trkpt><trkpt lat="43.0864711459642" lon="1.7842984487382392"><ele>275.8</ele><time>2026-04-02T06:58:56Z</time></trkpt><trkpt lat="43.086425311123705" lon="1.7843761514765772"><ele>275.0</ele><time>2026-04-02T06:58:58Z</time></trkpt><trkpt lat="43.08636642295369" lon="1.7845611947297435"><ele>275.0</ele><time>2026-04-02T06:59:02Z</time></trkpt><trkpt lat="43.0863219743175" lon="1.7846863317241606"><ele>275.0</ele><time>2026-04-02T06:59:03Z</time></trkpt><trkpt lat="43.0862653826038" lon="1.78483041086502"><ele>275.0</ele><time>2026-04-02T06:59:04Z</time></trkpt><trkpt lat="43.086179062384836" lon="1.7850128241385743"><ele>275.0</ele><time>2026-04-02T06:59:05Z</time></trkpt><trkpt lat="43.0860849336491" lon="1.78520014947884"><ele>277.6666666666667</ele><time>2026-04-02T06:59:06Z</time></trkpt><trkpt lat="43.08598724402849" lon="1.7853923883743261"><ele>280.3333333333333</ele><time>2026-04-02T06:59:07Z</time></trkpt><trkpt lat="43.085889954670236" lon="1.785594060503268"><ele>283.0</ele><time>2026-04-02T06:59:08Z</time></trkpt><trkpt lat="43.08579304112389" lon="1.7858046667973018"><ele>280.3333333333333</ele><time>2026-04-02T06:59:09Z</time></trkpt><trkpt lat="43.08570262156798" lon="1.78602020778782"><ele>277.6666666666667</ele><time>2026-04-02T06:59:10Z</time></trkpt><trkpt lat="43.08563044229841" lon="1.7862526061581498"><ele>275.0</ele><time>2026-04-02T06:59:11Z</time></trkpt><trkpt lat="43.08558696373668" lon="1.7865035689891493"><ele>275.0</ele><time>2026-04-02T06:59:12Z</time></trkpt><trkpt lat="43.085561701835516" lon="1.78677291206899"><ele>275.0</ele><time>2026-04-02T06:59:13Z</time></trkpt><trkpt lat="43.085528625566766" lon="1.787018616508632"><ele>275.0</ele><time>2026-04-02T06:59:14Z</time></trkpt><trkpt lat="43.08548150788528" lon="1.7872732261848143"><ele>276.33333333333337</ele><time>2026-04-02T06:59:15Z</time></trkpt><trkpt lat="43.08540250668143" lon="1.787500906938984"><ele>277.6666666666667</ele><time>2026-04-02T06:59:16Z</time></trkpt><trkpt lat="43.085306081794386" lon="1.7877362607905267"><ele>279.0</ele><time>2026-04-02T06:59:17Z</time></trkpt><trkpt lat="43.085235632707274" lon="1.787977466329952"><ele>280.3333333333333</ele><time>2026-04-02T06:59:18Z</time></trkpt><trkpt lat="43.08517881421268" lon="1.7882341430830542"><ele>281.66666666666663</ele><time>2026-04-02T06:59:19Z</time></trkpt><trkpt lat="43.085125507822276" lon="1.7884934701674564"><ele>283.0</ele><time>2026-04-02T06:59:20Z</time></trkpt><trkpt lat="43.08504487680735" lon="1.7887376257884806"><ele>280.66666666666663</ele><time>2026-04-02T06:59:21Z</time></trkpt><trkpt lat="43.08492899844675" lon="1.788953876337269"><ele>278.3333333333333</ele><time>2026-04-02T06:59:22Z</time></trkpt><trkpt lat="43.084811713577025" lon="1.7891726639374703"><ele>276.0</ele><time>2026-04-02T06:59:23Z</time></trkpt><trkpt lat="43.08468923516423" lon="1.7893952609295831"><ele>276.0</ele><time>2026-04-02T06:59:24Z</time></trkpt><trkpt lat="43.08457249559627" lon="1.789624135126776"><ele>276.0</ele><time>2026-04-02T06:59:25Z</time></trkpt><trkpt lat="43.084481129690424" lon="1.789884018340745"><ele>276.0</ele><time>2026-04-02T06:59:26Z</time></trkpt><trkpt lat="43.08440229444401" lon="1.7901560439088937"><ele>277.5</ele><time>2026-04-02T06:59:27Z</time></trkpt><trkpt lat="43.084356363843774" lon="1.790459461223736"><ele>279.0</ele><time>2026-04-02T06:59:28Z</time></trkpt><trkpt lat="43.0843367793718" lon="1.790780973408296"><ele>280.5</ele><time>2026-04-02T06:59:29Z</time></trkpt><trkpt lat="43.08431365093954" lon="1.7911255738735754"><ele>282.0</ele><time>2026-04-02T06:59:30Z</time></trkpt><trkpt lat="43.084274962337425" lon="1.7914823349184408"><ele>282.0</ele><time>2026-04-02T06:59:31Z</time></trkpt><trkpt lat="43.08423583479662" lon="1.7918146299493527"><ele>282.0</ele><time>2026-04-02T06:59:32Z</time></trkpt><trkpt lat="43.08420715796568" lon="1.792120656797278"><ele>282.0</ele><time>2026-04-02T06:59:33Z</time></trkpt><trkpt lat="43.08418127025165" lon="1.792428337993396"><ele>282.0</ele><time>2026-04-02T06:59:34Z</time></trkpt><trkpt lat="43.08414914665646" lon="1.7927471822372967"><ele>282.5</ele><time>2026-04-02T06:59:35Z</time></trkpt><trkpt lat="43.08412890101934" lon="1.7930711177567695"><ele>283.0</ele><time>2026-04-02T06:59:36Z</time></trkpt><trkpt lat="43.08414052470768" lon="1.7933985397842596"><ele>283.0</ele><time>2026-04-02T06:59:37Z</time></trkpt><trkpt lat="43.08418079663531" lon="1.7937267976047861"><ele>283.0</ele><time>2026-04-02T06:59:38Z</time></trkpt><trkpt lat="43.0842265544017" lon="1.7940517436536672"><ele>282.0</ele><time>2026-04-02T06:59:39Z</time></trkpt><trkpt lat="43.08427161276225" lon="1.7943700218697156"><ele>281.0</ele><time>2026-04-02T06:59:40Z</time></trkpt><trkpt lat="43.08432401739763" lon="1.7946876020773215"><ele>281.0</ele><time>2026-04-02T06:59:41Z</time></trkpt><trkpt lat="43.084400524287645" lon="1.794994580535568"><ele>281.0</ele><time>2026-04-02T06:59:42Z</time></trkpt><trkpt lat="43.08449534540717" lon="1.7952880587814797"><ele>280.5</ele><time>2026-04-02T06:59:43Z</time></trkpt><trkpt lat="43.08460166961377" lon="1.795572854137914"><ele>280.0</ele><time>2026-04-02T06:59:44Z</time></trkpt><trkpt lat="43.08470901066888" lon="1.7958535637432989"><ele>279.0</ele><time>2026-04-02T06:59:45Z</time></trkpt><trkpt lat="43.08479325590927" lon="1.796145827665232"><ele>278.0</ele><time>2026-04-02T06:59:46Z</time></trkpt><trkpt lat="43.08481994375124" lon="1.7964573264469945"><ele>278.0</ele><time>2026-04-02T06:59:47Z</time></trkpt><trkpt lat="43.08485154555517" lon="1.7967695780939676"><ele>278.0</ele><time>2026-04-02T06:59:48Z</time></trkpt><trkpt lat="43.084893518683835" lon="1.7970822909938373"><ele>278.0</ele><time>2026-04-02T06:59:49Z</time></trkpt><trkpt lat="43.08492124757988" lon="1.7973981872335256"><ele>278.0</ele><time>2026-04-02T06:59:50Z</time></trkpt><trkpt lat="43.08494751352146" lon="1.797716519592713"><ele>282.0</ele><time>2026-04-02T06:59:51Z</time></trkpt><trkpt lat="43.08498132268445" lon="1.7980238215706033"><ele>286.0</ele><time>2026-04-02T06:59:52Z</time></trkpt><trkpt lat="43.085012157037866" lon="1.798310048148783"><ele>290.0</ele><time>2026-04-02T06:59:53Z</time></trkpt><trkpt lat="43.08504060594386" lon="1.7985757145687566"><ele>290.0</ele><time>2026-04-02T06:59:54Z</time></trkpt><trkpt lat="43.08506381636405" lon="1.7988290162309037"><ele>290.0</ele><time>2026-04-02T06:59:55Z</time></trkpt><trkpt lat="43.08508086848058" lon="1.7990648269691314"><ele>290.0</ele><time>2026-04-02T06:59:56Z</time></trkpt><trkpt lat="43.08508931938027" lon="1.799289740437481"><ele>289.6666666666667</ele><time>2026-04-02T06:59:57Z</time></trkpt><trkpt lat="43.08508711547711" lon="1.7995152309135618"><ele>289.3333333333333</ele><time>2026-04-02T06:59:58Z</time></trkpt><trkpt lat="43.08507687158073" lon="1.7997434708040634"><ele>289.0</ele><time>2026-04-02T06:59:59Z</time></trkpt><trkpt lat="43.08505781381138" lon="1.799971645521707"><ele>290.0</ele><time>2026-04-02T07:00:00Z</time></trkpt><trkpt lat="43.085030850637146" lon="1.8001929249602873"><ele>291.0</ele><time>2026-04-02T07:00:01Z</time></trkpt><trkpt lat="43.08500340758876" lon="1.8004163714098398"><ele>292.0</ele><time>2026-04-02T07:00:02Z</time></trkpt><trkpt lat="43.08498070723162" lon="1.8006418855958024"><ele>292.0</ele><time>2026-04-02T07:00:03Z</time></trkpt><trkpt lat="43.08495069125315" lon="1.8008659957991136"><ele>292.0</ele><time>2026-04-02T07:00:04Z</time></trkpt><trkpt lat="43.08490962653378" lon="1.8010820948880877"><ele>292.0</ele><time>2026-04-02T07:00:05Z</time></trkpt><trkpt lat="43.08485625678716" lon="1.8012870994437546"><ele>287.66666666666663</ele><time>2026-04-02T07:00:06Z</time></trkpt><trkpt lat="43.08480146519734" lon="1.8014844431096413"><ele>283.3333333333333</ele><time>2026-04-02T07:00:07Z</time></trkpt><trkpt lat="43.084750835761646" lon="1.801679270442345"><ele>279.0</ele><time>2026-04-02T07:00:08Z</time></trkpt><trkpt lat="43.08470530284935" lon="1.801870035529081"><ele>279.0</ele><time>2026-04-02T07:00:09Z</time></trkpt><trkpt lat="43.084660419259585" lon="1.8020528835703222"><ele>279.0</ele><time>2026-04-02T07:00:10Z</time></trkpt><trkpt lat="43.08461914274946" lon="1.802228127580052"><ele>279.0</ele><time>2026-04-02T07:00:11Z</time></trkpt><trkpt lat="43.08458156783547" lon="1.8023906919483237"><ele>279.0</ele><time>2026-04-02T07:00:12Z</time></trkpt><trkpt lat="43.08455274180663" lon="1.8025488178137812"><ele>279.3333333333333</ele><time>2026-04-02T07:00:13Z</time></trkpt><trkpt lat="43.08453410746676" lon="1.802727543600137"><ele>279.66666666666663</ele><time>2026-04-02T07:00:14Z</time></trkpt><trkpt lat="43.08453170765741" lon="1.802938870270062"><ele>280.0</ele><time>2026-04-02T07:00:15Z</time></trkpt><trkpt lat="43.08455072068235" lon="1.8031639302558704"><ele>280.0</ele><time>2026-04-02T07:00:16Z</time></trkpt><trkpt lat="43.084591552937546" lon="1.8033791955694338"><ele>280.0</ele><time>2026-04-02T07:00:17Z</time></trkpt><trkpt lat="43.0846453581813" lon="1.803582105398415"><ele>280.0</ele><time>2026-04-02T07:00:18Z</time></trkpt><trkpt lat="43.08469767650712" lon="1.803779982333728"><ele>280.0</ele><time>2026-04-02T07:00:19Z</time></trkpt><trkpt lat="43.084736342726586" lon="1.8039794983062676"><ele>280.0</ele><time>2026-04-02T07:00:20Z</time></trkpt><trkpt lat="43.0847532945593" lon="1.8041812458798756"><ele>280.0</ele><time>2026-04-02T07:00:21Z</time></trkpt><trkpt lat="43.08475586318139" lon="1.8043829395613753"><ele>280.0</ele><time>2026-04-02T07:00:22Z</time></trkpt><trkpt lat="43.084768026310044" lon="1.8045825313477615"><ele>279.66666666666663</ele><time>2026-04-02T07:00:23Z</time></trkpt><trkpt lat="43.08479008364395" lon="1.8047847324799953"><ele>279.3333333333333</ele><time>2026-04-02T07:00:24Z</time></trkpt><trkpt lat="43.08480910785888" lon="1.8049856291001058"><ele>279.0</ele><time>2026-04-02T07:00:25Z</time></trkpt><trkpt lat="43.08483766416125" lon="1.8051975554127464"><ele>278.3333333333333</ele><time>2026-04-02T07:00:26Z</time></trkpt><trkpt lat="43.08490149519868" lon="1.8054297575202227"><ele>277.66666666666663</ele><time>2026-04-02T07:00:27Z</time></trkpt><trkpt lat="43.08499665640848" lon="1.8056944297977904"><ele>277.0</ele><time>2026-04-02T07:00:28Z</time></trkpt><trkpt lat="43.085090310105734" lon="1.805989312797913"><ele>279.5</ele><time>2026-04-02T07:00:29Z</time></trkpt><trkpt lat="43.0851642523275" lon="1.8063003544477014"><ele>282.0</ele><time>2026-04-02T07:00:30Z</time></trkpt><trkpt lat="43.08524061076996" lon="1.8066088981182258"><ele>281.5</ele><time>2026-04-02T07:00:31Z</time></trkpt><trkpt lat="43.08533963082164" lon="1.8069071347489964"><ele>281.0</ele><time>2026-04-02T07:00:32Z</time></trkpt><trkpt lat="43.08544117968344" lon="1.8071816020683382"><ele>281.0</ele><time>2026-04-02T07:00:33Z</time></trkpt><trkpt lat="43.085534541816514" lon="1.807430391453665"><ele>281.0</ele><time>2026-04-02T07:00:34Z</time></trkpt><trkpt lat="43.08565249837011" lon="1.8076585404009304"><ele>281.0</ele><time>2026-04-02T07:00:35Z</time></trkpt><trkpt lat="43.08581299130383" lon="1.8078728074279158"><ele>283.0</ele><time>2026-04-02T07:00:36Z</time></trkpt><trkpt lat="43.08599295976452" lon="1.808032172508161"><ele>285.0</ele><time>2026-04-02T07:00:37Z</time></trkpt><trkpt lat="43.08616525869823" lon="1.8081490168568877"><ele>287.0</ele><time>2026-04-02T07:00:38Z</time></trkpt><trkpt lat="43.086321610118674" lon="1.8082664918378493"><ele>287.0</ele><time>2026-04-02T07:00:39Z</time></trkpt><trkpt lat="43.08644092985168" lon="1.8084283049898355"><ele>287.0</ele><time>2026-04-02T07:00:40Z</time></trkpt><trkpt lat="43.0865238988379" lon="1.8086025963514827"><ele>287.0</ele><time>2026-04-02T07:00:41Z</time></trkpt><trkpt lat="43.08657805953539" lon="1.8087881806055346"><ele>286.33333333333337</ele><time>2026-04-02T07:00:42Z</time></trkpt><trkpt lat="43.08661583171567" lon="1.8090120110472836"><ele>285.6666666666667</ele><time>2026-04-02T07:00:43Z</time></trkpt><trkpt lat="43.086654737800046" lon="1.8092420705407324"><ele>285.0</ele><time>2026-04-02T07:00:44Z</time></trkpt><trkpt lat="43.08663951994314" lon="1.8095537918153002"><ele>285.0</ele><time>2026-04-02T07:00:45Z</time></trkpt><trkpt lat="43.08662687977307" lon="1.809868202477362"><ele>285.0</ele><time>2026-04-02T07:00:46Z</time></trkpt><trkpt lat="43.0866424046645" lon="1.8101750723306433"><ele>285.0</ele><time>2026-04-02T07:00:47Z</time></trkpt><trkpt lat="43.08665764555281" lon="1.8104749548035064"><ele>285.0</ele><time>2026-04-02T07:00:48Z</time></trkpt><trkpt lat="43.08667056304947" lon="1.810759697657463"><ele>285.0</ele><time>2026-04-02T07:00:49Z</time></trkpt><trkpt lat="43.086682502368944" lon="1.8110188482406449"><ele>285.6666666666667</ele><time>2026-04-02T07:00:50Z</time></trkpt><trkpt lat="43.08669931856377" lon="1.8112551293534775"><ele>286.33333333333337</ele><time>2026-04-02T07:00:51Z</time></trkpt><trkpt lat="43.086712553497605" lon="1.8114767039169828"><ele>287.0</ele><time>2026-04-02T07:00:52Z</time></trkpt><trkpt lat="43.08670438183129" lon="1.8116938147524626"><ele>286.6666666666667</ele><time>2026-04-02T07:00:53Z</time></trkpt><trkpt lat="43.08665750457033" lon="1.811929278346925"><ele>286.3333333333333</ele><time>2026-04-02T07:00:54Z</time></trkpt><trkpt lat="43.08656464726231" lon="1.8121619903110122"><ele>286.0</ele><time>2026-04-02T07:00:55Z</time></trkpt><trkpt lat="43.08642746924158" lon="1.8123679133561637"><ele>286.0</ele><time>2026-04-02T07:00:56Z</time></trkpt><trkpt lat="43.08626239991447" lon="1.8125582839119936"><ele>286.0</ele><time>2026-04-02T07:00:57Z</time></trkpt><trkpt lat="43.08608273737905" lon="1.8127304336600496"><ele>286.0</ele><time>2026-04-02T07:00:58Z</time></trkpt><trkpt lat="43.08588743650261" lon="1.8128605467967518"><ele>286.66666666666663</ele><time>2026-04-02T07:00:59Z</time></trkpt><trkpt lat="43.085676784680025" lon="1.8129423611170765"><ele>287.3333333333333</ele><time>2026-04-02T07:01:00Z</time></trkpt><trkpt lat="43.0854633589835" lon="1.8129837199605012"><ele>288.0</ele><time>2026-04-02T07:01:01Z</time></trkpt><trkpt lat="43.08525039173638" lon="1.8130237979242354"><ele>288.0</ele><time>2026-04-02T07:01:02Z</time></trkpt><trkpt lat="43.085050487821306" lon="1.8130853724235603"><ele>288.0</ele><time>2026-04-02T07:01:03Z</time></trkpt><trkpt lat="43.084865795550314" lon="1.813144130387338"><ele>288.0</ele><time>2026-04-02T07:01:04Z</time></trkpt><trkpt lat="43.08470814455598" lon="1.8132058755256677"><ele>286.6666666666667</ele><time>2026-04-02T07:01:05Z</time></trkpt><trkpt lat="43.084572065852115" lon="1.8133248520519745"><ele>285.33333333333337</ele><time>2026-04-02T07:01:06Z</time></trkpt><trkpt lat="43.08446084627554" lon="1.8135004265972188"><ele>284.0</ele><time>2026-04-02T07:01:07Z</time></trkpt><trkpt lat="43.084386032124534" lon="1.8137184275269214"><ele>284.0</ele><time>2026-04-02T07:01:08Z</time></trkpt><trkpt lat="43.08435201032986" lon="1.8139669771059168"><ele>284.0</ele><time>2026-04-02T07:01:09Z</time></trkpt><trkpt lat="43.08434764959523" lon="1.8142219826346802"><ele>284.0</ele><time>2026-04-02T07:01:10Z</time></trkpt><trkpt lat="43.084333363791295" lon="1.8145014307791931"><ele>285.0</ele><time>2026-04-02T07:01:11Z</time></trkpt><trkpt lat="43.08431128714174" lon="1.8147958636987604"><ele>286.0</ele><time>2026-04-02T07:01:12Z</time></trkpt><trkpt lat="43.08426326104061" lon="1.8150882544764784"><ele>287.0</ele><time>2026-04-02T07:01:13Z</time></trkpt><trkpt lat="43.08421336582048" lon="1.8153836257263378"><ele>289.5</ele><time>2026-04-02T07:01:14Z</time></trkpt><trkpt lat="43.08413014949791" lon="1.8156744994431928"><ele>292.0</ele><time>2026-04-02T07:01:15Z</time></trkpt><trkpt lat="43.08403917682608" lon="1.815960563402562"><ele>286.0</ele><time>2026-04-02T07:01:16Z</time></trkpt><trkpt lat="43.08397328707758" lon="1.8162608265450015"><ele>280.0</ele><time>2026-04-02T07:01:17Z</time></trkpt><trkpt lat="43.08391827402887" lon="1.8165831769367415"><ele>280.3333333333333</ele><time>2026-04-02T07:01:18Z</time></trkpt><trkpt lat="43.08388058975101" lon="1.8168906730113628"><ele>280.6666666666667</ele><time>2026-04-02T07:01:19Z</time></trkpt><trkpt lat="43.08384987396782" lon="1.8171743193951955"><ele>281.0</ele><time>2026-04-02T07:01:20Z</time></trkpt><trkpt lat="43.08379691062178" lon="1.8174487293066166"><ele>282.33333333333337</ele><time>2026-04-02T07:01:21Z</time></trkpt><trkpt lat="43.083726351391334" lon="1.817727115118482"><ele>283.6666666666667</ele><time>2026-04-02T07:01:22Z</time></trkpt><trkpt lat="43.08362014695045" lon="1.8179960070250336"><ele>285.0</ele><time>2026-04-02T07:01:23Z</time></trkpt><trkpt lat="43.08351834088681" lon="1.8182630496534338"><ele>285.3333333333333</ele><time>2026-04-02T07:01:24Z</time></trkpt><trkpt lat="43.083453586059946" lon="1.8185347628417972"><ele>285.66666666666663</ele><time>2026-04-02T07:01:25Z</time></trkpt><trkpt lat="43.08342558969337" lon="1.818819844590292"><ele>286.0</ele><time>2026-04-02T07:01:26Z</time></trkpt><trkpt lat="43.083435198333866" lon="1.819141028385149"><ele>286.5</ele><time>2026-04-02T07:01:27Z</time></trkpt><trkpt lat="43.08344996908166" lon="1.8194791736951887"><ele>287.0</ele><time>2026-04-02T07:01:28Z</time></trkpt><trkpt lat="43.083445320715704" lon="1.8198207706389828"><ele>287.5</ele><time>2026-04-02T07:01:29Z</time></trkpt><trkpt lat="43.08343731501073" lon="1.8201548972207238"><ele>288.0</ele><time>2026-04-02T07:01:30Z</time></trkpt><trkpt lat="43.08344387658476" lon="1.8204802685587989"><ele>288.0</ele><time>2026-04-02T07:01:31Z</time></trkpt><trkpt lat="43.08345536338312" lon="1.8208032310465292"><ele>288.0</ele><time>2026-04-02T07:01:32Z</time></trkpt><trkpt lat="43.08347684943008" lon="1.8211317744821165"><ele>287.5</ele><time>2026-04-02T07:01:33Z</time></trkpt><trkpt lat="43.083513752187656" lon="1.8214533580821446"><ele>287.0</ele><time>2026-04-02T07:01:34Z</time></trkpt><trkpt lat="43.083561773438355" lon="1.8217731678017286"><ele>287.5</ele><time>2026-04-02T07:01:35Z</time></trkpt><trkpt lat="43.08361570282478" lon="1.8220833368563711"><ele>288.0</ele><time>2026-04-02T07:01:36Z</time></trkpt><trkpt lat="43.08367568009204" lon="1.8223846404979256"><ele>287.3333333333333</ele><time>2026-04-02T07:01:37Z</time></trkpt><trkpt lat="43.08373457593581" lon="1.8226793667754448"><ele>286.66666666666663</ele><time>2026-04-02T07:01:38Z</time></trkpt><trkpt lat="43.08379131640077" lon="1.822974588094074"><ele>286.0</ele><time>2026-04-02T07:01:39Z</time></trkpt><trkpt lat="43.08384742590017" lon="1.823270760869601"><ele>286.0</ele><time>2026-04-02T07:01:40Z</time></trkpt><trkpt lat="43.08390326957983" lon="1.8235651144768394"><ele>286.0</ele><time>2026-04-02T07:01:41Z</time></trkpt><trkpt lat="43.083967741463155" lon="1.8238832080406815"><ele>286.0</ele><time>2026-04-02T07:01:42Z</time></trkpt><trkpt lat="43.084021800994414" lon="1.8242020830336123"><ele>286.0</ele><time>2026-04-02T07:01:43Z</time></trkpt><trkpt lat="43.084088958106115" lon="1.8245195169943242"><ele>289.5</ele><time>2026-04-02T07:01:44Z</time></trkpt><trkpt lat="43.084160901200526" lon="1.8248280717808134"><ele>293.0</ele><time>2026-04-02T07:01:45Z</time></trkpt><trkpt lat="43.08424495606137" lon="1.8251301246287934"><ele>290.5</ele><time>2026-04-02T07:01:46Z</time></trkpt><trkpt lat="43.08433878544331" lon="1.8254215588707137"><ele>288.0</ele><time>2026-04-02T07:01:47Z</time></trkpt><trkpt lat="43.08444066684446" lon="1.8257117794433477"><ele>287.0</ele><time>2026-04-02T07:01:48Z</time></trkpt><trkpt lat="43.08454553748934" lon="1.8259947027853383"><ele>286.0</ele><time>2026-04-02T07:01:49Z</time></trkpt><trkpt lat="43.08465109522586" lon="1.826280629884957"><ele>286.0</ele><time>2026-04-02T07:01:50Z</time></trkpt><trkpt lat="43.084759496374204" lon="1.8265643716277191"><ele>286.0</ele><time>2026-04-02T07:01:51Z</time></trkpt><trkpt lat="43.08488413476276" lon="1.826840256364045"><ele>288.0</ele><time>2026-04-02T07:01:52Z</time></trkpt><trkpt lat="43.08502415562429" lon="1.827088894151185"><ele>290.0</ele><time>2026-04-02T07:01:53Z</time></trkpt><trkpt lat="43.08517562209996" lon="1.8273269221146622"><ele>290.0</ele><time>2026-04-02T07:01:54Z</time></trkpt><trkpt lat="43.085321192517085" lon="1.8275661082644046"><ele>290.0</ele><time>2026-04-02T07:01:55Z</time></trkpt><trkpt lat="43.0854656095478" lon="1.827810777498579"><ele>287.5</ele><time>2026-04-02T07:01:56Z</time></trkpt><trkpt lat="43.085605875455585" lon="1.8280608109447296"><ele>285.0</ele><time>2026-04-02T07:01:57Z</time></trkpt><trkpt lat="43.08574465734454" lon="1.8283068798593973"><ele>286.0</ele><time>2026-04-02T07:01:58Z</time></trkpt><trkpt lat="43.085887570034984" lon="1.8285464187737872"><ele>287.0</ele><time>2026-04-02T07:01:59Z</time></trkpt><trkpt lat="43.08602599277474" lon="1.8287766140252113"><ele>288.0</ele><time>2026-04-02T07:02:00Z</time></trkpt><trkpt lat="43.08613546501834" lon="1.829052258727642"><ele>287.0</ele><time>2026-04-02T07:02:01Z</time></trkpt><trkpt lat="43.08623665443517" lon="1.8293484957580581"><ele>286.0</ele><time>2026-04-02T07:02:02Z</time></trkpt><trkpt lat="43.08632164328804" lon="1.8296835300609147"><ele>286.0</ele><time>2026-04-02T07:02:03Z</time></trkpt><trkpt lat="43.086386188579866" lon="1.8300291391903065"><ele>286.0</ele><time>2026-04-02T07:02:04Z</time></trkpt><trkpt lat="43.08644784882339" lon="1.8303867186292158"><ele>286.0</ele><time>2026-04-02T07:02:05Z</time></trkpt><trkpt lat="43.08651793823168" lon="1.8307600306917042"><ele>286.0</ele><time>2026-04-02T07:02:06Z</time></trkpt><trkpt lat="43.08657826416673" lon="1.8311555232729522"><ele>285.5</ele><time>2026-04-02T07:02:07Z</time></trkpt><trkpt lat="43.086646116711385" lon="1.8315436800590912"><ele>285.0</ele><time>2026-04-02T07:02:08Z</time></trkpt><trkpt lat="43.086718213714825" lon="1.831932096164061"><ele>285.0</ele><time>2026-04-02T07:02:09Z</time></trkpt><trkpt lat="43.086770717548305" lon="1.8323340855760961"><ele>285.0</ele><time>2026-04-02T07:02:10Z</time></trkpt><trkpt lat="43.08685094266772" lon="1.832717713641112"><ele>285.0</ele><time>2026-04-02T07:02:11Z</time></trkpt><trkpt lat="43.08691233150522" lon="1.8330800470598698"><ele>285.0</ele><time>2026-04-02T07:02:12Z</time></trkpt><trkpt lat="43.08697226914714" lon="1.8334243933310488"><ele>285.5</ele><time>2026-04-02T07:02:13Z</time></trkpt><trkpt lat="43.087033773914996" lon="1.8337590655828975"><ele>286.0</ele><time>2026-04-02T07:02:14Z</time></trkpt><trkpt lat="43.087099745253774" lon="1.834094157339273"><ele>286.0</ele><time>2026-04-02T07:02:15Z</time></trkpt><trkpt lat="43.08717359085985" lon="1.8344211253438947"><ele>286.0</ele><time>2026-04-02T07:02:16Z</time></trkpt><trkpt lat="43.087259064485245" lon="1.8347347854108904"><ele>286.0</ele><time>2026-04-02T07:02:17Z</time></trkpt><trkpt lat="43.08736444945749" lon="1.8350389040465025"><ele>286.0</ele><time>2026-04-02T07:02:18Z</time></trkpt><trkpt lat="43.08745073228127" lon="1.8353658223019824"><ele>285.5</ele><time>2026-04-02T07:02:19Z</time></trkpt><trkpt lat="43.08755613885802" lon="1.8356927334107254"><ele>285.0</ele><time>2026-04-02T07:02:20Z</time></trkpt><trkpt lat="43.08778702316041" lon="1.8359679128914057"><ele>285.0</ele><time>2026-04-02T07:02:21Z</time></trkpt><trkpt lat="43.08795532081978" lon="1.836282507900798"><ele>285.0</ele><time>2026-04-02T07:02:22Z</time></trkpt><trkpt lat="43.088117013795355" lon="1.8365832155998099"><ele>285.0</ele><time>2026-04-02T07:02:23Z</time></trkpt><trkpt lat="43.088268157969665" lon="1.8368678862346095"><ele>285.0</ele><time>2026-04-02T07:02:24Z</time></trkpt><trkpt lat="43.08841245291157" lon="1.8371397878770026"><ele>285.0</ele><time>2026-04-02T07:02:25Z</time></trkpt><trkpt lat="43.08855402116071" lon="1.837412265863157"><ele>285.0</ele><time>2026-04-02T07:02:26Z</time></trkpt><trkpt lat="43.0886848878703" lon="1.8376668962186702"><ele>285.6666666666667</ele><time>2026-04-02T07:02:27Z</time></trkpt><trkpt lat="43.08880296434966" lon="1.8378980966700604"><ele>286.33333333333337</ele><time>2026-04-02T07:02:28Z</time></trkpt><trkpt lat="43.08891242543357" lon="1.8381166181819344"><ele>287.0</ele><time>2026-04-02T07:02:29Z</time></trkpt><trkpt lat="43.08901704826935" lon="1.8383180724078865"><ele>287.6666666666667</ele><time>2026-04-02T07:02:30Z</time></trkpt><trkpt lat="43.089128375350725" lon="1.8385044584340409"><ele>288.3333333333333</ele><time>2026-04-02T07:02:31Z</time></trkpt><trkpt lat="43.08925608387073" lon="1.8386816704716378"><ele>289.0</ele><time>2026-04-02T07:02:32Z</time></trkpt><trkpt lat="43.08939467932181" lon="1.83884822487163"><ele>289.0</ele><time>2026-04-02T07:02:33Z</time></trkpt><trkpt lat="43.08952678903761" lon="1.8390149086411398"><ele>289.0</ele><time>2026-04-02T07:02:34Z</time></trkpt><trkpt lat="43.08965714320595" lon="1.8391812769393332"><ele>289.0</ele><time>2026-04-02T07:02:35Z</time></trkpt><trkpt lat="43.08980145168827" lon="1.839350951383915"><ele>288.66666666666663</ele><time>2026-04-02T07:02:36Z</time></trkpt><trkpt lat="43.08996738915152" lon="1.8395287796507584"><ele>288.3333333333333</ele><time>2026-04-02T07:02:37Z</time></trkpt><trkpt lat="43.09014970967677" lon="1.8397117274531323"><ele>288.0</ele><time>2026-04-02T07:02:38Z</time></trkpt><trkpt lat="43.090329054921675" lon="1.839884986886906"><ele>288.0</ele><time>2026-04-02T07:02:39Z</time></trkpt><trkpt lat="43.0905130856729" lon="1.8400636086970965"><ele>288.0</ele><time>2026-04-02T07:02:40Z</time></trkpt><trkpt lat="43.09069608802865" lon="1.8402395932638422"><ele>288.0</ele><time>2026-04-02T07:02:41Z</time></trkpt><trkpt lat="43.0908797530361" lon="1.840426681671784"><ele>287.5</ele><time>2026-04-02T07:02:42Z</time></trkpt><trkpt lat="43.09105970463144" lon="1.8406170657756182"><ele>287.0</ele><time>2026-04-02T07:02:43Z</time></trkpt><trkpt lat="43.09124673560546" lon="1.8408073067053852"><ele>287.5</ele><time>2026-04-02T07:02:44Z</time></trkpt><trkpt lat="43.09143850842216" lon="1.8409945122845472"><ele>288.0</ele><time>2026-04-02T07:02:45Z</time></trkpt><trkpt lat="43.09162965548183" lon="1.8411811693051767"><ele>288.0</ele><time>2026-04-02T07:02:46Z</time></trkpt><trkpt lat="43.091820863900296" lon="1.8413642322653294"><ele>288.0</ele><time>2026-04-02T07:02:47Z</time></trkpt><trkpt lat="43.091998658198264" lon="1.841532095900568"><ele>288.0</ele><time>2026-04-02T07:02:48Z</time></trkpt><trkpt lat="43.09217578184758" lon="1.8417080028981772"><ele>288.0</ele><time>2026-04-02T07:02:49Z</time></trkpt><trkpt lat="43.09235743290524" lon="1.8418994102083306"><ele>288.0</ele><time>2026-04-02T07:02:50Z</time></trkpt><trkpt lat="43.09251820223754" lon="1.842123576383672"><ele>288.5</ele><time>2026-04-02T07:02:51Z</time></trkpt><trkpt lat="43.09266434460143" lon="1.842379167333837"><ele>289.0</ele><time>2026-04-02T07:02:52Z</time></trkpt><trkpt lat="43.09279010321197" lon="1.8426582100368694"><ele>289.0</ele><time>2026-04-02T07:02:53Z</time></trkpt><trkpt lat="43.09288945810262" lon="1.8429576914917132"><ele>289.0</ele><time>2026-04-02T07:02:54Z</time></trkpt><trkpt lat="43.092966211507964" lon="1.8432655693187416"><ele>289.5</ele><time>2026-04-02T07:02:55Z</time></trkpt><trkpt lat="43.09303519169055" lon="1.843569553119049"><ele>290.0</ele><time>2026-04-02T07:02:56Z</time></trkpt><trkpt lat="43.0931151776685" lon="1.8438724418562737"><ele>290.0</ele><time>2026-04-02T07:02:57Z</time></trkpt><trkpt lat="43.09320128227507" lon="1.844173775213056"><ele>290.0</ele><time>2026-04-02T07:02:58Z</time></trkpt><trkpt lat="43.093282950838955" lon="1.8444735616008026"><ele>291.0</ele><time>2026-04-02T07:02:59Z</time></trkpt><trkpt lat="43.09335884756339" lon="1.8447666248063557"><ele>292.0</ele><time>2026-04-02T07:03:00Z</time></trkpt><trkpt lat="43.09343619450578" lon="1.8450542657544875"><ele>292.0</ele><time>2026-04-02T07:03:01Z</time></trkpt><trkpt lat="43.09351003916542" lon="1.8453210464658376"><ele>292.0</ele><time>2026-04-02T07:03:02Z</time></trkpt><trkpt lat="43.09357418899337" lon="1.845555596277074"><ele>292.0</ele><time>2026-04-02T07:03:03Z</time></trkpt><trkpt lat="43.09364612216545" lon="1.8457989540073083"><ele>292.0</ele><time>2026-04-02T07:03:04Z</time></trkpt><trkpt lat="43.093741551123536" lon="1.8460429664825377"><ele>292.0</ele><time>2026-04-02T07:03:05Z</time></trkpt><trkpt lat="43.093852740850295" lon="1.8462468702192927"><ele>292.0</ele><time>2026-04-02T07:03:06Z</time></trkpt><trkpt lat="43.09398214979306" lon="1.8464061645357184"><ele>292.0</ele><time>2026-04-02T07:03:07Z</time></trkpt><trkpt lat="43.09414172687483" lon="1.8465213435486576"><ele>292.0</ele><time>2026-04-02T07:03:08Z</time></trkpt><trkpt lat="43.09430662533964" lon="1.8465747732198867"><ele>292.0</ele><time>2026-04-02T07:03:09Z</time></trkpt><trkpt lat="43.0944617064027" lon="1.8465862485758264"><ele>292.0</ele><time>2026-04-02T07:03:10Z</time></trkpt><trkpt lat="43.09459130640408" lon="1.8465829529028246"><ele>292.0</ele><time>2026-04-02T07:03:11Z</time></trkpt><trkpt lat="43.09467820176404" lon="1.84659558169619"><ele>292.0</ele><time>2026-04-02T07:03:12Z</time></trkpt><trkpt lat="43.094734711843955" lon="1.8466402147467218"><ele>292.0</ele><time>2026-04-02T07:03:13Z</time></trkpt><trkpt lat="43.09476774486429" lon="1.8467277977158525"><ele>292.0</ele><time>2026-04-02T07:03:14Z</time></trkpt><trkpt lat="43.094765456478605" lon="1.8468487124762476"><ele>292.0</ele><time>2026-04-02T07:03:15Z</time></trkpt><trkpt lat="43.09474319155241" lon="1.846992308456599"><ele>292.0</ele><time>2026-04-02T07:03:16Z</time></trkpt><trkpt lat="43.0947032116018" lon="1.847174050014204"><ele>292.0</ele><time>2026-04-02T07:03:17Z</time></trkpt><trkpt lat="43.09467979897462" lon="1.8473808928216953"><ele>292.0</ele><time>2026-04-02T07:03:18Z</time></trkpt><trkpt lat="43.09465389957447" lon="1.8476067150390498"><ele>291.3333333333333</ele><time>2026-04-02T07:03:19Z</time></trkpt><trkpt lat="43.09462881952344" lon="1.847847541155955"><ele>290.6666666666667</ele><time>2026-04-02T07:03:20Z</time></trkpt><trkpt lat="43.094617590341244" lon="1.8481349483286535"><ele>290.0</ele><time>2026-04-02T07:03:21Z</time></trkpt><trkpt lat="43.09462464134283" lon="1.8484409562223132"><ele>289.6666666666667</ele><time>2026-04-02T07:03:22Z</time></trkpt><trkpt lat="43.094640288547986" lon="1.8487399542868823"><ele>289.3333333333333</ele><time>2026-04-02T07:03:23Z</time></trkpt><trkpt lat="43.09464806763581" lon="1.8490431930876075"><ele>289.0</ele><time>2026-04-02T07:03:24Z</time></trkpt><trkpt lat="43.0946506407312" lon="1.8493536786296754"><ele>288.5</ele><time>2026-04-02T07:03:25Z</time></trkpt><trkpt lat="43.09465455646322" lon="1.8496742027133506"><ele>288.0</ele><time>2026-04-02T07:03:26Z</time></trkpt><trkpt lat="43.094661544417015" lon="1.8500038319122576"><ele>289.0</ele><time>2026-04-02T07:03:27Z</time></trkpt><trkpt lat="43.09467094206254" lon="1.8503094033840883"><ele>290.0</ele><time>2026-04-02T07:03:28Z</time></trkpt><trkpt lat="43.09468034917185" lon="1.8506273483023652"><ele>290.0</ele><time>2026-04-02T07:03:29Z</time></trkpt><trkpt lat="43.09468649857005" lon="1.8509507673893157"><ele>290.0</ele><time>2026-04-02T07:03:30Z</time></trkpt><trkpt lat="43.09469260533138" lon="1.8512811803648523"><ele>290.0</ele><time>2026-04-02T07:03:31Z</time></trkpt><trkpt lat="43.09469983640535" lon="1.851609288744403"><ele>290.0</ele><time>2026-04-02T07:03:32Z</time></trkpt><trkpt lat="43.094707328614184" lon="1.8519432071531072"><ele>290.0</ele><time>2026-04-02T07:03:33Z</time></trkpt><trkpt lat="43.094712919586605" lon="1.8522835529905333"><ele>290.0</ele><time>2026-04-02T07:03:34Z</time></trkpt><trkpt lat="43.09471851585891" lon="1.852622061282923"><ele>290.0</ele><time>2026-04-02T07:03:35Z</time></trkpt><trkpt lat="43.09472960554754" lon="1.8529625794327378"><ele>290.0</ele><time>2026-04-02T07:03:36Z</time></trkpt><trkpt lat="43.09473881923041" lon="1.8533014961153467"><ele>289.0</ele><time>2026-04-02T07:03:37Z</time></trkpt><trkpt lat="43.09474384356863" lon="1.8536389271650164"><ele>288.0</ele><time>2026-04-02T07:03:38Z</time></trkpt><trkpt lat="43.094751249689644" lon="1.8539915815398227"><ele>288.5</ele><time>2026-04-02T07:03:39Z</time></trkpt><trkpt lat="43.09475892742037" lon="1.8543413555196435"><ele>289.0</ele><time>2026-04-02T07:03:40Z</time></trkpt><trkpt lat="43.094767503138435" lon="1.8546899082089823"><ele>289.0</ele><time>2026-04-02T07:03:41Z</time></trkpt><trkpt lat="43.0947748130729" lon="1.8550382475711897"><ele>289.0</ele><time>2026-04-02T07:03:42Z</time></trkpt><trkpt lat="43.09478120766746" lon="1.8553861104193403"><ele>289.5</ele><time>2026-04-02T07:03:43Z</time></trkpt><trkpt lat="43.094787133988625" lon="1.8557358989029777"><ele>290.0</ele><time>2026-04-02T07:03:44Z</time></trkpt><trkpt lat="43.09479506134334" lon="1.856082406791322"><ele>290.5</ele><time>2026-04-02T07:03:45Z</time></trkpt><trkpt lat="43.094805281144474" lon="1.8564299866035465"><ele>291.0</ele><time>2026-04-02T07:03:46Z</time></trkpt><trkpt lat="43.09481538716778" lon="1.8567768240905766"><ele>291.0</ele><time>2026-04-02T07:03:47Z</time></trkpt><trkpt lat="43.09482371579838" lon="1.8571206574473582"><ele>291.0</ele><time>2026-04-02T07:03:48Z</time></trkpt><trkpt lat="43.09483016259466" lon="1.8574626621200774"><ele>291.0</ele><time>2026-04-02T07:03:49Z</time></trkpt><trkpt lat="43.09483668345546" lon="1.8578023340913592"><ele>291.0</ele><time>2026-04-02T07:03:50Z</time></trkpt><trkpt lat="43.09484621632099" lon="1.85814523583256"><ele>291.0</ele><time>2026-04-02T07:03:51Z</time></trkpt><trkpt lat="43.09485831178977" lon="1.858499085442042"><ele>291.0</ele><time>2026-04-02T07:03:52Z</time></trkpt><trkpt lat="43.094867962186115" lon="1.8588542329209319"><ele>291.0</ele><time>2026-04-02T07:03:53Z</time></trkpt><trkpt lat="43.0948757152723" lon="1.8592094691926664"><ele>291.0</ele><time>2026-04-02T07:03:54Z</time></trkpt><trkpt lat="43.094882764997934" lon="1.859562986658556"><ele>292.0</ele><time>2026-04-02T07:03:55Z</time></trkpt><trkpt lat="43.09489013227543" lon="1.85991355398862"><ele>293.0</ele><time>2026-04-02T07:03:56Z</time></trkpt><trkpt lat="43.094894591753075" lon="1.8602549719511567"><ele>293.5</ele><time>2026-04-02T07:03:57Z</time></trkpt><trkpt lat="43.09489931437737" lon="1.8605805295056688"><ele>294.0</ele><time>2026-04-02T07:03:58Z</time></trkpt><trkpt lat="43.09490215621753" lon="1.8608811456116885"><ele>294.3333333333333</ele><time>2026-04-02T07:03:59Z</time></trkpt><trkpt lat="43.09490681141991" lon="1.861164603546334"><ele>294.66666666666663</ele><time>2026-04-02T07:04:00Z</time></trkpt><trkpt lat="43.09491207944467" lon="1.861437668848175"><ele>295.0</ele><time>2026-04-02T07:04:01Z</time></trkpt><trkpt lat="43.094916843023384" lon="1.8617332270017581"><ele>295.0</ele><time>2026-04-02T07:04:02Z</time></trkpt><trkpt lat="43.09492331489472" lon="1.8620379609415432"><ele>295.0</ele><time>2026-04-02T07:04:03Z</time></trkpt><trkpt lat="43.094936196048025" lon="1.8623532391608306"><ele>293.5</ele><time>2026-04-02T07:04:04Z</time></trkpt><trkpt lat="43.09497979413096" lon="1.8626778724126716"><ele>292.0</ele><time>2026-04-02T07:04:05Z</time></trkpt><trkpt lat="43.09504868351094" lon="1.8629871977855552"><ele>292.0</ele><time>2026-04-02T07:04:06Z</time></trkpt><trkpt lat="43.09512839914423" lon="1.8632964749627992"><ele>292.0</ele><time>2026-04-02T07:04:07Z</time></trkpt><trkpt lat="43.09520683110843" lon="1.8636043929091293"><ele>293.0</ele><time>2026-04-02T07:04:08Z</time></trkpt><trkpt lat="43.095280095682035" lon="1.8639134229725194"><ele>294.0</ele><time>2026-04-02T07:04:09Z</time></trkpt><trkpt lat="43.09535174666664" lon="1.8642242825704134"><ele>293.5</ele><time>2026-04-02T07:04:10Z</time></trkpt><trkpt lat="43.0954208098328" lon="1.864527376876532"><ele>293.0</ele><time>2026-04-02T07:04:11Z</time></trkpt><trkpt lat="43.095493448416775" lon="1.8648340578548626"><ele>292.5</ele><time>2026-04-02T07:04:12Z</time></trkpt><trkpt lat="43.09556303188892" lon="1.865141861402931"><ele>292.0</ele><time>2026-04-02T07:04:13Z</time></trkpt><trkpt lat="43.095631193221905" lon="1.8654476038513286"><ele>292.0</ele><time>2026-04-02T07:04:14Z</time></trkpt><trkpt lat="43.095699618271794" lon="1.8657556872021697"><ele>292.0</ele><time>2026-04-02T07:04:15Z</time></trkpt><trkpt lat="43.09576447851628" lon="1.8660599854304922"><ele>292.5</ele><time>2026-04-02T07:04:16Z</time></trkpt><trkpt lat="43.095831660952975" lon="1.8663645945860239"><ele>293.0</ele><time>2026-04-02T07:04:17Z</time></trkpt><trkpt lat="43.095901622052125" lon="1.866670541763332"><ele>293.0</ele><time>2026-04-02T07:04:18Z</time></trkpt><trkpt lat="43.09597188981226" lon="1.8669760550742192"><ele>293.0</ele><time>2026-04-02T07:04:19Z</time></trkpt><trkpt lat="43.09604221581151" lon="1.8672839560259589"><ele>293.0</ele><time>2026-04-02T07:04:20Z</time></trkpt><trkpt lat="43.096109070180596" lon="1.8675892801563378"><ele>293.0</ele><time>2026-04-02T07:04:21Z</time></trkpt><trkpt lat="43.09617679491516" lon="1.8678954681289872"><ele>292.5</ele><time>2026-04-02T07:04:22Z</time></trkpt><trkpt lat="43.09624647493741" lon="1.8681991137690037"><ele>292.0</ele><time>2026-04-02T07:04:23Z</time></trkpt><trkpt lat="43.09631610023827" lon="1.8684997317173315"><ele>292.0</ele><time>2026-04-02T07:04:24Z</time></trkpt><trkpt lat="43.09638689759171" lon="1.8687973777525688"><ele>292.0</ele><time>2026-04-02T07:04:25Z</time></trkpt><trkpt lat="43.09645883368594" lon="1.8690971811914503"><ele>292.66666666666663</ele><time>2026-04-02T07:04:26Z</time></trkpt><trkpt lat="43.09652445459762" lon="1.869388686914219"><ele>293.3333333333333</ele><time>2026-04-02T07:04:27Z</time></trkpt><trkpt lat="43.09658769812352" lon="1.8696726622684658"><ele>294.0</ele><time>2026-04-02T07:04:28Z</time></trkpt><trkpt lat="43.09664745156999" lon="1.8699539362223625"><ele>294.0</ele><time>2026-04-02T07:04:29Z</time></trkpt><trkpt lat="43.09669387121018" lon="1.870239320995589"><ele>294.0</ele><time>2026-04-02T07:04:30Z</time></trkpt><trkpt lat="43.09671175845502" lon="1.8705375095739105"><ele>294.0</ele><time>2026-04-02T07:04:31Z</time></trkpt><trkpt lat="43.09669451169334" lon="1.8708581328617666"><ele>293.5</ele><time>2026-04-02T07:04:32Z</time></trkpt><trkpt lat="43.09665929292582" lon="1.8711902815241293"><ele>293.0</ele><time>2026-04-02T07:04:33Z</time></trkpt><trkpt lat="43.09662741677669" lon="1.8715342393212873"><ele>293.5</ele><time>2026-04-02T07:04:34Z</time></trkpt><trkpt lat="43.09660344310141" lon="1.8718792109858744"><ele>294.0</ele><time>2026-04-02T07:04:35Z</time></trkpt><trkpt lat="43.09658230199289" lon="1.8722194459256623"><ele>294.0</ele><time>2026-04-02T07:04:36Z</time></trkpt><trkpt lat="43.096564488807715" lon="1.8725518898538798"><ele>294.0</ele><time>2026-04-02T07:04:37Z</time></trkpt><trkpt lat="43.09654956144162" lon="1.8728833462482775"><ele>294.0</ele><time>2026-04-02T07:04:38Z</time></trkpt><trkpt lat="43.096530903332976" lon="1.8732090336253115"><ele>294.0</ele><time>2026-04-02T07:04:39Z</time></trkpt><trkpt lat="43.09651208387557" lon="1.8735284388254962"><ele>294.0</ele><time>2026-04-02T07:04:40Z</time></trkpt><trkpt lat="43.09649505700382" lon="1.8738482906072096"><ele>294.0</ele><time>2026-04-02T07:04:41Z</time></trkpt><trkpt lat="43.09647897400262" lon="1.8741606698309952"><ele>294.3333333333333</ele><time>2026-04-02T07:04:42Z</time></trkpt><trkpt lat="43.0964628591763" lon="1.8744534049001196"><ele>294.66666666666663</ele><time>2026-04-02T07:04:43Z</time></trkpt><trkpt lat="43.096448474740036" lon="1.8747206323206413"><ele>295.0</ele><time>2026-04-02T07:04:44Z</time></trkpt><trkpt lat="43.09643508233767" lon="1.8749723016532451"><ele>295.66666666666663</ele><time>2026-04-02T07:04:45Z</time></trkpt><trkpt lat="43.09641941347187" lon="1.875210670736549"><ele>296.3333333333333</ele><time>2026-04-02T07:04:46Z</time></trkpt><trkpt lat="43.0964061576021" lon="1.8754324570409684"><ele>297.0</ele><time>2026-04-02T07:04:47Z</time></trkpt><trkpt lat="43.09639940548162" lon="1.87563970727365"><ele>297.0</ele><time>2026-04-02T07:04:48Z</time></trkpt><trkpt lat="43.09639333033504" lon="1.8758271988130972"><ele>297.0</ele><time>2026-04-02T07:04:49Z</time></trkpt><trkpt lat="43.09635197417195" lon="1.875991431910325"><ele>297.0</ele><time>2026-04-02T07:04:50Z</time></trkpt><trkpt lat="43.096286618393336" lon="1.8761188326562042"><ele>297.0</ele><time>2026-04-02T07:04:51Z</time></trkpt><trkpt lat="43.09622841766755" lon="1.8762057349413193"><ele>297.0</ele><time>2026-04-02T07:04:52Z</time></trkpt><trkpt lat="43.09619683361801" lon="1.8762924700221864"><ele>297.0</ele><time>2026-04-02T07:04:54Z</time></trkpt><trkpt lat="43.09625087060333" lon="1.876469070956433"><ele>297.0</ele><time>2026-04-02T07:04:57Z</time></trkpt><trkpt lat="43.09630268425961" lon="1.8765904319647921"><ele>297.0</ele><time>2026-04-02T07:04:58Z</time></trkpt><trkpt lat="43.09633533309134" lon="1.876755100036988"><ele>297.0</ele><time>2026-04-02T07:04:59Z</time></trkpt><trkpt lat="43.09633801770026" lon="1.8769417982773366"><ele>296.6666666666667</ele><time>2026-04-02T07:05:00Z</time></trkpt><trkpt lat="43.09632046978439" lon="1.8771555851759443"><ele>296.33333333333337</ele><time>2026-04-02T07:05:01Z</time></trkpt><trkpt lat="43.096292753555346" lon="1.877362473068225"><ele>296.0</ele><time>2026-04-02T07:05:02Z</time></trkpt><trkpt lat="43.096270807088835" lon="1.8775511046636049"><ele>296.6666666666667</ele><time>2026-04-02T07:05:03Z</time></trkpt><trkpt lat="43.096260346939644" lon="1.877772549515176"><ele>297.3333333333333</ele><time>2026-04-02T07:05:04Z</time></trkpt><trkpt lat="43.096250675551374" lon="1.8780299179013114"><ele>298.0</ele><time>2026-04-02T07:05:05Z</time></trkpt><trkpt lat="43.09623433521411" lon="1.878303961254881"><ele>298.0</ele><time>2026-04-02T07:05:06Z</time></trkpt><trkpt lat="43.09621898398687" lon="1.878559879484455"><ele>298.0</ele><time>2026-04-02T07:05:07Z</time></trkpt><trkpt lat="43.0962040863898" lon="1.8788209079028941"><ele>298.0</ele><time>2026-04-02T07:05:08Z</time></trkpt><trkpt lat="43.09619026996733" lon="1.8791060261341883"><ele>297.5</ele><time>2026-04-02T07:05:09Z</time></trkpt><trkpt lat="43.096172678607864" lon="1.8794245001672285"><ele>297.0</ele><time>2026-04-02T07:05:10Z</time></trkpt><trkpt lat="43.09615349484908" lon="1.8797566083251682"><ele>297.0</ele><time>2026-04-02T07:05:11Z</time></trkpt><trkpt lat="43.09613298234518" lon="1.880076699725891"><ele>297.0</ele><time>2026-04-02T07:05:12Z</time></trkpt><trkpt lat="43.09611362238007" lon="1.8803940516642712"><ele>296.5</ele><time>2026-04-02T07:05:13Z</time></trkpt><trkpt lat="43.096097323014604" lon="1.8807103293764427"><ele>296.0</ele><time>2026-04-02T07:05:14Z</time></trkpt><trkpt lat="43.096081137801015" lon="1.881025137145823"><ele>296.0</ele><time>2026-04-02T07:05:15Z</time></trkpt><trkpt lat="43.09606377325787" lon="1.8813433941546995"><ele>296.0</ele><time>2026-04-02T07:05:16Z</time></trkpt><trkpt lat="43.09604349019127" lon="1.8816682437612902"><ele>296.0</ele><time>2026-04-02T07:05:17Z</time></trkpt><trkpt lat="43.09602179500417" lon="1.8820087621947228"><ele>296.0</ele><time>2026-04-02T07:05:18Z</time></trkpt><trkpt lat="43.09600299463" lon="1.8823452948702877"><ele>296.5</ele><time>2026-04-02T07:05:19Z</time></trkpt><trkpt lat="43.09598635958549" lon="1.8826824331694767"><ele>297.0</ele><time>2026-04-02T07:05:20Z</time></trkpt><trkpt lat="43.09596932673815" lon="1.8830176836956634"><ele>297.0</ele><time>2026-04-02T07:05:21Z</time></trkpt><trkpt lat="43.09594963843664" lon="1.8833501257764673"><ele>297.0</ele><time>2026-04-02T07:05:22Z</time></trkpt><trkpt lat="43.09593026807314" lon="1.8836850953071773"><ele>297.0</ele><time>2026-04-02T07:05:23Z</time></trkpt><trkpt lat="43.09591200487938" lon="1.8840168042419003"><ele>297.0</ele><time>2026-04-02T07:05:24Z</time></trkpt><trkpt lat="43.09589385739588" lon="1.884346240352737"><ele>297.0</ele><time>2026-04-02T07:05:25Z</time></trkpt><trkpt lat="43.095878642521484" lon="1.884677901095667"><ele>297.0</ele><time>2026-04-02T07:05:26Z</time></trkpt><trkpt lat="43.095865690259195" lon="1.8850083768920183"><ele>297.5</ele><time>2026-04-02T07:05:27Z</time></trkpt><trkpt lat="43.095850403805585" lon="1.8853389125587752"><ele>298.0</ele><time>2026-04-02T07:05:28Z</time></trkpt><trkpt lat="43.09582928289786" lon="1.8856678852528013"><ele>298.5</ele><time>2026-04-02T07:05:29Z</time></trkpt><trkpt lat="43.09580786264446" lon="1.8859944475865107"><ele>299.0</ele><time>2026-04-02T07:05:30Z</time></trkpt><trkpt lat="43.0957901219061" lon="1.8863271534320103"><ele>299.0</ele><time>2026-04-02T07:05:31Z</time></trkpt><trkpt lat="43.09577085274699" lon="1.8866642840278274"><ele>299.0</ele><time>2026-04-02T07:05:32Z</time></trkpt><trkpt lat="43.095748453349955" lon="1.8870028433011106"><ele>299.0</ele><time>2026-04-02T07:05:33Z</time></trkpt><trkpt lat="43.095727749674225" lon="1.8873375239430508"><ele>299.0</ele><time>2026-04-02T07:05:34Z</time></trkpt><trkpt lat="43.09570966592322" lon="1.887679599468833"><ele>299.0</ele><time>2026-04-02T07:05:35Z</time></trkpt><trkpt lat="43.09569651195168" lon="1.8880181720540083"><ele>299.0</ele><time>2026-04-02T07:05:36Z</time></trkpt><trkpt lat="43.09568277769619" lon="1.8883585233792834"><ele>298.5</ele><time>2026-04-02T07:05:37Z</time></trkpt><trkpt lat="43.09566983585927" lon="1.8887037268530713"><ele>298.0</ele><time>2026-04-02T07:05:38Z</time></trkpt><trkpt lat="43.095660447603805" lon="1.889046947639779"><ele>298.0</ele><time>2026-04-02T07:05:39Z</time></trkpt><trkpt lat="43.09565254874702" lon="1.8893928264329043"><ele>298.0</ele><time>2026-04-02T07:05:40Z</time></trkpt><trkpt lat="43.09564398689295" lon="1.8897328067843353"><ele>298.0</ele><time>2026-04-02T07:05:41Z</time></trkpt><trkpt lat="43.09563423311571" lon="1.8900744428402287"><ele>298.0</ele><time>2026-04-02T07:05:42Z</time></trkpt><trkpt lat="43.095623692289315" lon="1.8904141850693885"><ele>298.0</ele><time>2026-04-02T07:05:43Z</time></trkpt><trkpt lat="43.09561684820002" lon="1.8907518377140307"><ele>298.0</ele><time>2026-04-02T07:05:44Z</time></trkpt><trkpt lat="43.095609399882875" lon="1.8910915776647064"><ele>298.0</ele><time>2026-04-02T07:05:45Z</time></trkpt><trkpt lat="43.09560125204978" lon="1.8914302849497477"><ele>298.0</ele><time>2026-04-02T07:05:46Z</time></trkpt><trkpt lat="43.09559143867196" lon="1.8917704747519728"><ele>299.0</ele><time>2026-04-02T07:05:47Z</time></trkpt><trkpt lat="43.095580566952115" lon="1.8921073777885336"><ele>300.0</ele><time>2026-04-02T07:05:48Z</time></trkpt><trkpt lat="43.0955697329158" lon="1.8924479408574635"><ele>300.5</ele><time>2026-04-02T07:05:49Z</time></trkpt><trkpt lat="43.095559698430506" lon="1.8927894424569949"><ele>301.0</ele><time>2026-04-02T07:05:50Z</time></trkpt><trkpt lat="43.09555590527519" lon="1.8931335115394834"><ele>301.5</ele><time>2026-04-02T07:05:51Z</time></trkpt><trkpt lat="43.09556070512202" lon="1.893476051000839"><ele>302.0</ele><time>2026-04-02T07:05:52Z</time></trkpt><trkpt lat="43.09558008751719" lon="1.8938270868066056"><ele>302.0</ele><time>2026-04-02T07:05:53Z</time></trkpt><trkpt lat="43.09561731145606" lon="1.8941712143310223"><ele>302.0</ele><time>2026-04-02T07:05:54Z</time></trkpt><trkpt lat="43.09567255822788" lon="1.8945136271993874"><ele>302.5</ele><time>2026-04-02T07:05:55Z</time></trkpt><trkpt lat="43.09573495021228" lon="1.894853438213679"><ele>303.0</ele><time>2026-04-02T07:05:56Z</time></trkpt><trkpt lat="43.09582927814734" lon="1.8951796222404422"><ele>301.5</ele><time>2026-04-02T07:05:57Z</time></trkpt><trkpt lat="43.09594092103435" lon="1.895497759967658"><ele>300.0</ele><time>2026-04-02T07:05:58Z</time></trkpt><trkpt lat="43.09606402142058" lon="1.8958075576716282"><ele>301.0</ele><time>2026-04-02T07:05:59Z</time></trkpt><trkpt lat="43.09619746431983" lon="1.8961048909688092"><ele>302.0</ele><time>2026-04-02T07:06:00Z</time></trkpt><trkpt lat="43.09634722184187" lon="1.8963867031502932"><ele>302.0</ele><time>2026-04-02T07:06:01Z</time></trkpt><trkpt lat="43.09650897738133" lon="1.896653923339491"><ele>302.0</ele><time>2026-04-02T07:06:02Z</time></trkpt><trkpt lat="43.09667447629437" lon="1.8969160529008589"><ele>303.0</ele><time>2026-04-02T07:06:03Z</time></trkpt><trkpt lat="43.09683491011946" lon="1.8971833731089234"><ele>304.0</ele><time>2026-04-02T07:06:04Z</time></trkpt><trkpt lat="43.096994351711984" lon="1.8974600065360352"><ele>303.5</ele><time>2026-04-02T07:06:05Z</time></trkpt><trkpt lat="43.09715788553272" lon="1.8977376557505579"><ele>303.0</ele><time>2026-04-02T07:06:06Z</time></trkpt><trkpt lat="43.09732097333505" lon="1.8980117061725066"><ele>303.5</ele><time>2026-04-02T07:06:07Z</time></trkpt><trkpt lat="43.097481692241864" lon="1.8982849865509726"><ele>304.0</ele><time>2026-04-02T07:06:08Z</time></trkpt><trkpt lat="43.09764735040033" lon="1.8985538633881023"><ele>304.5</ele><time>2026-04-02T07:06:09Z</time></trkpt><trkpt lat="43.097810020185314" lon="1.898821519479572"><ele>305.0</ele><time>2026-04-02T07:06:10Z</time></trkpt><trkpt lat="43.09797237272413" lon="1.8990854549396012"><ele>305.0</ele><time>2026-04-02T07:06:11Z</time></trkpt><trkpt lat="43.098134733776824" lon="1.8993574812167473"><ele>305.0</ele><time>2026-04-02T07:06:12Z</time></trkpt><trkpt lat="43.09829292986336" lon="1.8996267026250204"><ele>304.5</ele><time>2026-04-02T07:06:13Z</time></trkpt><trkpt lat="43.09845058729811" lon="1.8998927951658842"><ele>304.0</ele><time>2026-04-02T07:06:14Z</time></trkpt><trkpt lat="43.09860554951597" lon="1.9001643679743434"><ele>305.0</ele><time>2026-04-02T07:06:15Z</time></trkpt><trkpt lat="43.09876124512617" lon="1.900463184075782"><ele>306.0</ele><time>2026-04-02T07:06:16Z</time></trkpt><trkpt lat="43.098901502941985" lon="1.9007892910604725"><ele>306.0</ele><time>2026-04-02T07:06:17Z</time></trkpt><trkpt lat="43.09901846605915" lon="1.9011339610525255"><ele>306.0</ele><time>2026-04-02T07:06:18Z</time></trkpt><trkpt lat="43.09914148433605" lon="1.9014810819769812"><ele>306.5</ele><time>2026-04-02T07:06:19Z</time></trkpt><trkpt lat="43.09923153863078" lon="1.901872119011931"><ele>307.0</ele><time>2026-04-02T07:06:20Z</time></trkpt><trkpt lat="43.09934416602003" lon="1.9022320741239949"><ele>307.0</ele><time>2026-04-02T07:06:21Z</time></trkpt><trkpt lat="43.099457500881776" lon="1.9025873329641663"><ele>307.0</ele><time>2026-04-02T07:06:22Z</time></trkpt><trkpt lat="43.09956655919705" lon="1.9029401505111998"><ele>307.0</ele><time>2026-04-02T07:06:23Z</time></trkpt><trkpt lat="43.099674078501636" lon="1.9032894403541334"><ele>307.0</ele><time>2026-04-02T07:06:24Z</time></trkpt><trkpt lat="43.09978012288927" lon="1.9036315738691874"><ele>307.0</ele><time>2026-04-02T07:06:25Z</time></trkpt><trkpt lat="43.09988345611298" lon="1.9039736047775022"><ele>307.0</ele><time>2026-04-02T07:06:26Z</time></trkpt><trkpt lat="43.09999142092712" lon="1.9043138955816723"><ele>307.0</ele><time>2026-04-02T07:06:27Z</time></trkpt><trkpt lat="43.10010575147058" lon="1.904674895499309"><ele>307.0</ele><time>2026-04-02T07:06:28Z</time></trkpt><trkpt lat="43.10022327485403" lon="1.905051063867097"><ele>307.0</ele><time>2026-04-02T07:06:29Z</time></trkpt><trkpt lat="43.10034324229849" lon="1.9054321064586097"><ele>307.0</ele><time>2026-04-02T07:06:30Z</time></trkpt><trkpt lat="43.100464161324666" lon="1.905809441279374"><ele>309.0</ele><time>2026-04-02T07:06:31Z</time></trkpt><trkpt lat="43.1005811105141" lon="1.9061833715609924"><ele>311.0</ele><time>2026-04-02T07:06:32Z</time></trkpt><trkpt lat="43.10069634183726" lon="1.9065549270475397"><ele>310.0</ele><time>2026-04-02T07:06:33Z</time></trkpt><trkpt lat="43.10081174861449" lon="1.906927946314569"><ele>309.0</ele><time>2026-04-02T07:06:34Z</time></trkpt><trkpt lat="43.10092460399808" lon="1.9072883060526016"><ele>309.5</ele><time>2026-04-02T07:06:35Z</time></trkpt><trkpt lat="43.101036358680126" lon="1.9076428260885974"><ele>310.0</ele><time>2026-04-02T07:06:36Z</time></trkpt><trkpt lat="43.10114769851228" lon="1.9079970206264698"><ele>310.0</ele><time>2026-04-02T07:06:37Z</time></trkpt><trkpt lat="43.1012537048427" lon="1.90835121902715"><ele>310.0</ele><time>2026-04-02T07:06:38Z</time></trkpt><trkpt lat="43.10136168846787" lon="1.9087031485092998"><ele>310.0</ele><time>2026-04-02T07:06:39Z</time></trkpt><trkpt lat="43.101471553497284" lon="1.9090503262364853"><ele>310.0</ele><time>2026-04-02T07:06:40Z</time></trkpt><trkpt lat="43.10158203513765" lon="1.909393247296362"><ele>311.0</ele><time>2026-04-02T07:06:41Z</time></trkpt><trkpt lat="43.10169129548071" lon="1.9097323623605114"><ele>312.0</ele><time>2026-04-02T07:06:42Z</time></trkpt><trkpt lat="43.1017985593191" lon="1.9100685881896882"><ele>312.0</ele><time>2026-04-02T07:06:43Z</time></trkpt><trkpt lat="43.1019008475943" lon="1.910395536343483"><ele>312.0</ele><time>2026-04-02T07:06:44Z</time></trkpt><trkpt lat="43.101993502399125" lon="1.9106960702349824"><ele>312.0</ele><time>2026-04-02T07:06:45Z</time></trkpt><trkpt lat="43.102078890823776" lon="1.9109779639880693"><ele>312.0</ele><time>2026-04-02T07:06:46Z</time></trkpt><trkpt lat="43.10216428788812" lon="1.911255553058666"><ele>312.0</ele><time>2026-04-02T07:06:47Z</time></trkpt><trkpt lat="43.1022480709426" lon="1.9115204625963558"><ele>312.3333333333333</ele><time>2026-04-02T07:06:48Z</time></trkpt><trkpt lat="43.10232874452813" lon="1.9117759503595493"><ele>312.66666666666663</ele><time>2026-04-02T07:06:49Z</time></trkpt><trkpt lat="43.10241588199682" lon="1.9120410060199662"><ele>313.0</ele><time>2026-04-02T07:06:50Z</time></trkpt><trkpt lat="43.10250774192327" lon="1.9123153109220548"><ele>314.0</ele><time>2026-04-02T07:06:51Z</time></trkpt><trkpt lat="43.10261118277927" lon="1.912615439095241"><ele>315.0</ele><time>2026-04-02T07:06:52Z</time></trkpt><trkpt lat="43.102717755808236" lon="1.9129364385455372"><ele>315.0</ele><time>2026-04-02T07:06:53Z</time></trkpt><trkpt lat="43.10281721379163" lon="1.9132659752225305"><ele>315.0</ele><time>2026-04-02T07:06:54Z</time></trkpt><trkpt lat="43.10291285844452" lon="1.9136095211246535"><ele>315.0</ele><time>2026-04-02T07:06:55Z</time></trkpt><trkpt lat="43.10300937928699" lon="1.9139632722929154"><ele>315.0</ele><time>2026-04-02T07:06:56Z</time></trkpt><trkpt lat="43.103112532414215" lon="1.9143257873469912"><ele>314.5</ele><time>2026-04-02T07:06:57Z</time></trkpt><trkpt lat="43.1032203485547" lon="1.9146921176740392"><ele>314.0</ele><time>2026-04-02T07:06:58Z</time></trkpt><trkpt lat="43.103324831409864" lon="1.9150611595417435"><ele>314.5</ele><time>2026-04-02T07:06:59Z</time></trkpt><trkpt lat="43.10343042450538" lon="1.9154296506219908"><ele>315.0</ele><time>2026-04-02T07:07:00Z</time></trkpt><trkpt lat="43.10353493713815" lon="1.91578877486704"><ele>315.0</ele><time>2026-04-02T07:07:01Z</time></trkpt><trkpt lat="43.10363900752863" lon="1.9161329489586973"><ele>315.0</ele><time>2026-04-02T07:07:02Z</time></trkpt><trkpt lat="43.1037452270191" lon="1.9164733293973277"><ele>315.0</ele><time>2026-04-02T07:07:03Z</time></trkpt><trkpt lat="43.1038492720368" lon="1.916813247887761"><ele>315.0</ele><time>2026-04-02T07:07:04Z</time></trkpt><trkpt lat="43.103951812154776" lon="1.9171495290321219"><ele>315.0</ele><time>2026-04-02T07:07:05Z</time></trkpt><trkpt lat="43.10405789478361" lon="1.9174765095216035"><ele>315.0</ele><time>2026-04-02T07:07:06Z</time></trkpt><trkpt lat="43.10417801991054" lon="1.9177987566718941"><ele>316.5</ele><time>2026-04-02T07:07:07Z</time></trkpt><trkpt lat="43.10430740325802" lon="1.9181203445073889"><ele>318.0</ele><time>2026-04-02T07:07:08Z</time></trkpt><trkpt lat="43.10444082946081" lon="1.918444311861659"><ele>318.0</ele><time>2026-04-02T07:07:09Z</time></trkpt><trkpt lat="43.10458065554339" lon="1.9187750882912027"><ele>318.0</ele><time>2026-04-02T07:07:10Z</time></trkpt><trkpt lat="43.10473593910255" lon="1.919104301386141"><ele>317.5</ele><time>2026-04-02T07:07:11Z</time></trkpt><trkpt lat="43.104908683421" lon="1.9194234205269602"><ele>317.0</ele><time>2026-04-02T07:07:12Z</time></trkpt><trkpt lat="43.105090788013534" lon="1.919727760933739"><ele>318.0</ele><time>2026-04-02T07:07:13Z</time></trkpt><trkpt lat="43.10527839072177" lon="1.9200346353353477"><ele>319.0</ele><time>2026-04-02T07:07:14Z</time></trkpt><trkpt lat="43.105469220813525" lon="1.920341309437978"><ele>319.0</ele><time>2026-04-02T07:07:15Z</time></trkpt><trkpt lat="43.10566903532092" lon="1.9206427801881263"><ele>319.0</ele><time>2026-04-02T07:07:16Z</time></trkpt><trkpt lat="43.10587429049022" lon="1.9209399295543894"><ele>321.0</ele><time>2026-04-02T07:07:17Z</time></trkpt><trkpt lat="43.106082572897904" lon="1.9212317700689843"><ele>323.0</ele><time>2026-04-02T07:07:18Z</time></trkpt><trkpt lat="43.106292974668115" lon="1.9215247328286218"><ele>322.5</ele><time>2026-04-02T07:07:19Z</time></trkpt><trkpt lat="43.10650142482794" lon="1.9218224406280737"><ele>322.0</ele><time>2026-04-02T07:07:20Z</time></trkpt><trkpt lat="43.10670585111064" lon="1.9221182187471249"><ele>321.5</ele><time>2026-04-02T07:07:21Z</time></trkpt><trkpt lat="43.10691221525384" lon="1.9224106950579287"><ele>321.0</ele><time>2026-04-02T07:07:22Z</time></trkpt><trkpt lat="43.1071195362929" lon="1.9227000553297737"><ele>320.5</ele><time>2026-04-02T07:07:23Z</time></trkpt><trkpt lat="43.10732580521148" lon="1.9229875792530344"><ele>320.0</ele><time>2026-04-02T07:07:24Z</time></trkpt><trkpt lat="43.1075305817219" lon="1.9232727654185318"><ele>320.5</ele><time>2026-04-02T07:07:25Z</time></trkpt><trkpt lat="43.10773306735883" lon="1.923557619346724"><ele>321.0</ele><time>2026-04-02T07:07:26Z</time></trkpt><trkpt lat="43.107936544636" lon="1.9238458985193008"><ele>321.0</ele><time>2026-04-02T07:07:27Z</time></trkpt><trkpt lat="43.10814040938641" lon="1.924135738940783"><ele>321.0</ele><time>2026-04-02T07:07:28Z</time></trkpt><trkpt lat="43.10834475962262" lon="1.9244209805392798"><ele>322.5</ele><time>2026-04-02T07:07:29Z</time></trkpt><trkpt lat="43.10855496035187" lon="1.9246948715301542"><ele>324.0</ele><time>2026-04-02T07:07:30Z</time></trkpt><trkpt lat="43.10877234156078" lon="1.9249517154783473"><ele>324.0</ele><time>2026-04-02T07:07:31Z</time></trkpt><trkpt lat="43.10900090248493" lon="1.9251919802491495"><ele>324.0</ele><time>2026-04-02T07:07:32Z</time></trkpt><trkpt lat="43.10923767564433" lon="1.9254192825051362"><ele>324.0</ele><time>2026-04-02T07:07:33Z</time></trkpt><trkpt lat="43.1094812975471" lon="1.925649956253842"><ele>324.0</ele><time>2026-04-02T07:07:34Z</time></trkpt><trkpt lat="43.10972924602824" lon="1.9258861520291872"><ele>326.0</ele><time>2026-04-02T07:07:35Z</time></trkpt><trkpt lat="43.10997983268203" lon="1.9261228361630325"><ele>328.0</ele><time>2026-04-02T07:07:36Z</time></trkpt><trkpt lat="43.110222234666466" lon="1.926350329085121"><ele>328.0</ele><time>2026-04-02T07:07:37Z</time></trkpt><trkpt lat="43.11046659605073" lon="1.9265754267417678"><ele>328.0</ele><time>2026-04-02T07:07:38Z</time></trkpt><trkpt lat="43.11070727222095" lon="1.926791803495694"><ele>331.5</ele><time>2026-04-02T07:07:39Z</time></trkpt><trkpt lat="43.1109466948817" lon="1.927002723938537"><ele>335.0</ele><time>2026-04-02T07:07:40Z</time></trkpt><trkpt lat="43.11118856923647" lon="1.9272092977405542"><ele>335.0</ele><time>2026-04-02T07:07:41Z</time></trkpt><trkpt lat="43.11143882673084" lon="1.92741482394805"><ele>335.0</ele><time>2026-04-02T07:07:42Z</time></trkpt><trkpt lat="43.111695520367576" lon="1.9276199354589467"><ele>340.0</ele><time>2026-04-02T07:07:43Z</time></trkpt><trkpt lat="43.111958813468604" lon="1.9278219460383712"><ele>345.0</ele><time>2026-04-02T07:07:44Z</time></trkpt><trkpt lat="43.1122276790314" lon="1.928027452682705"><ele>346.5</ele><time>2026-04-02T07:07:45Z</time></trkpt><trkpt lat="43.11249721635563" lon="1.928233762022311"><ele>348.0</ele><time>2026-04-02T07:07:46Z</time></trkpt><trkpt lat="43.11276296307206" lon="1.9284395425037615"><ele>348.5</ele><time>2026-04-02T07:07:47Z</time></trkpt><trkpt lat="43.113024717761306" lon="1.9286440105678275"><ele>349.0</ele><time>2026-04-02T07:07:48Z</time></trkpt><trkpt lat="43.11328579921839" lon="1.9288485231510846"><ele>349.5</ele><time>2026-04-02T07:07:49Z</time></trkpt><trkpt lat="43.11354718295725" lon="1.9290532033670247"><ele>350.0</ele><time>2026-04-02T07:07:50Z</time></trkpt><trkpt lat="43.11380968747972" lon="1.9292580042446181"><ele>351.5</ele><time>2026-04-02T07:07:51Z</time></trkpt><trkpt lat="43.11407606771843" lon="1.9294595912824273"><ele>353.0</ele><time>2026-04-02T07:07:52Z</time></trkpt><trkpt lat="43.1143452551996" lon="1.9296606308765765"><ele>353.0</ele><time>2026-04-02T07:07:53Z</time></trkpt><trkpt lat="43.11461945426646" lon="1.9298738861375602"><ele>353.0</ele><time>2026-04-02T07:07:54Z</time></trkpt><trkpt lat="43.11489858474947" lon="1.9300919959243692"><ele>352.0</ele><time>2026-04-02T07:07:55Z</time></trkpt><trkpt lat="43.11518466848497" lon="1.930315445710788"><ele>351.0</ele><time>2026-04-02T07:07:56Z</time></trkpt><trkpt lat="43.115468058823105" lon="1.930531402019991"><ele>347.5</ele><time>2026-04-02T07:07:57Z</time></trkpt><trkpt lat="43.11575634207209" lon="1.9307437904085707"><ele>344.0</ele><time>2026-04-02T07:07:58Z</time></trkpt><trkpt lat="43.1160422798089" lon="1.9309619027518012"><ele>343.5</ele><time>2026-04-02T07:07:59Z</time></trkpt><trkpt lat="43.11632628419756" lon="1.9311856322855243"><ele>343.0</ele><time>2026-04-02T07:08:00Z</time></trkpt><trkpt lat="43.11660677971273" lon="1.9314133591652125"><ele>343.0</ele><time>2026-04-02T07:08:01Z</time></trkpt><trkpt lat="43.11688563518304" lon="1.931637409202881"><ele>343.0</ele><time>2026-04-02T07:08:02Z</time></trkpt><trkpt lat="43.1171648584544" lon="1.9318610062482415"><ele>342.5</ele><time>2026-04-02T07:08:03Z</time></trkpt><trkpt lat="43.11744120259799" lon="1.9320851966680257"><ele>342.0</ele><time>2026-04-02T07:08:04Z</time></trkpt><trkpt lat="43.117714449283724" lon="1.9323077203994028"><ele>342.0</ele><time>2026-04-02T07:08:05Z</time></trkpt><trkpt lat="43.11798853486494" lon="1.9325262253408526"><ele>342.0</ele><time>2026-04-02T07:08:06Z</time></trkpt><trkpt lat="43.11826150741227" lon="1.9327410689675506"><ele>344.5</ele><time>2026-04-02T07:08:07Z</time></trkpt><trkpt lat="43.118533706791595" lon="1.932964725602064"><ele>347.0</ele><time>2026-04-02T07:08:08Z</time></trkpt><trkpt lat="43.118811240704865" lon="1.9331929229360634"><ele>348.5</ele><time>2026-04-02T07:08:09Z</time></trkpt><trkpt lat="43.11909631143066" lon="1.9334249322377375"><ele>350.0</ele><time>2026-04-02T07:08:10Z</time></trkpt><trkpt lat="43.119383064883344" lon="1.9336518837116003"><ele>350.0</ele><time>2026-04-02T07:08:11Z</time></trkpt><trkpt lat="43.119663150272274" lon="1.9338796448617954"><ele>350.0</ele><time>2026-04-02T07:08:12Z</time></trkpt><trkpt lat="43.11994331732498" lon="1.9341077684208914"><ele>351.0</ele><time>2026-04-02T07:08:13Z</time></trkpt><trkpt lat="43.120225823747575" lon="1.9343277561652998"><ele>352.0</ele><time>2026-04-02T07:08:14Z</time></trkpt><trkpt lat="43.120499718294454" lon="1.9345491739337701"><ele>353.5</ele><time>2026-04-02T07:08:15Z</time></trkpt><trkpt lat="43.12076673158215" lon="1.9347671205677954"><ele>355.0</ele><time>2026-04-02T07:08:16Z</time></trkpt><trkpt lat="43.12102793449629" lon="1.9349843174615322"><ele>357.5</ele><time>2026-04-02T07:08:17Z</time></trkpt><trkpt lat="43.121288893824556" lon="1.9351925769179197"><ele>360.0</ele><time>2026-04-02T07:08:18Z</time></trkpt><trkpt lat="43.12154306028885" lon="1.9353970332611712"><ele>361.0</ele><time>2026-04-02T07:08:19Z</time></trkpt><trkpt lat="43.121788378412965" lon="1.9355964953347495"><ele>362.0</ele><time>2026-04-02T07:08:20Z</time></trkpt><trkpt lat="43.122027710666714" lon="1.9357913891516032"><ele>363.0</ele><time>2026-04-02T07:08:21Z</time></trkpt><trkpt lat="43.1222671057948" lon="1.9359833118943357"><ele>364.0</ele><time>2026-04-02T07:08:22Z</time></trkpt><trkpt lat="43.12250562287481" lon="1.9361784980159122"><ele>364.5</ele><time>2026-04-02T07:08:23Z</time></trkpt><trkpt lat="43.12274998821554" lon="1.9363760324793"><ele>365.0</ele><time>2026-04-02T07:08:24Z</time></trkpt><trkpt lat="43.122995038843875" lon="1.9365702426698548"><ele>365.5</ele><time>2026-04-02T07:08:25Z</time></trkpt><trkpt lat="43.12323515335823" lon="1.936761869034007"><ele>366.0</ele><time>2026-04-02T07:08:26Z</time></trkpt><trkpt lat="43.12347152088443" lon="1.9369509870838921"><ele>366.0</ele><time>2026-04-02T07:08:27Z</time></trkpt><trkpt lat="43.123710806407935" lon="1.9371371930212014"><ele>366.0</ele><time>2026-04-02T07:08:28Z</time></trkpt><trkpt lat="43.1239486450169" lon="1.9373208971020117"><ele>367.5</ele><time>2026-04-02T07:08:29Z</time></trkpt><trkpt lat="43.124189302502955" lon="1.9375122293389473"><ele>369.0</ele><time>2026-04-02T07:08:30Z</time></trkpt><trkpt lat="43.124427572407434" lon="1.937717001220017"><ele>369.5</ele><time>2026-04-02T07:08:31Z</time></trkpt><trkpt lat="43.12466123088942" lon="1.9379407522310443"><ele>370.0</ele><time>2026-04-02T07:08:32Z</time></trkpt><trkpt lat="43.12489055548146" lon="1.9381804452262297"><ele>367.5</ele><time>2026-04-02T07:08:33Z</time></trkpt><trkpt lat="43.125111959931985" lon="1.9384362809437152"><ele>365.0</ele><time>2026-04-02T07:08:34Z</time></trkpt><trkpt lat="43.12532377922756" lon="1.9387047553095256"><ele>365.0</ele><time>2026-04-02T07:08:35Z</time></trkpt><trkpt lat="43.125529574460415" lon="1.9389822886643973"><ele>365.0</ele><time>2026-04-02T07:08:36Z</time></trkpt><trkpt lat="43.12573204772795" lon="1.9392597876987927"><ele>365.5</ele><time>2026-04-02T07:08:37Z</time></trkpt><trkpt lat="43.12593778714121" lon="1.9395285460283143"><ele>366.0</ele><time>2026-04-02T07:08:38Z</time></trkpt><trkpt lat="43.126143803290965" lon="1.9397918856727943"><ele>366.0</ele><time>2026-04-02T07:08:39Z</time></trkpt><trkpt lat="43.126348770324824" lon="1.9400498110475393"><ele>366.0</ele><time>2026-04-02T07:08:40Z</time></trkpt><trkpt lat="43.12655689012098" lon="1.9403153236169246"><ele>365.5</ele><time>2026-04-02T07:08:41Z</time></trkpt><trkpt lat="43.12676520853388" lon="1.940586098156104"><ele>365.0</ele><time>2026-04-02T07:08:42Z</time></trkpt><trkpt lat="43.12697193993266" lon="1.9408612558968696"><ele>365.0</ele><time>2026-04-02T07:08:43Z</time></trkpt><trkpt lat="43.12716788580777" lon="1.9411477920786626"><ele>365.0</ele><time>2026-04-02T07:08:44Z</time></trkpt><trkpt lat="43.127345855055786" lon="1.9414559187269884"><ele>366.0</ele><time>2026-04-02T07:08:45Z</time></trkpt><trkpt lat="43.12750411101153" lon="1.9417834421319966"><ele>367.0</ele><time>2026-04-02T07:08:46Z</time></trkpt><trkpt lat="43.127647662416734" lon="1.942119938225204"><ele>367.0</ele><time>2026-04-02T07:08:47Z</time></trkpt><trkpt lat="43.12778969905433" lon="1.942451281675626"><ele>367.0</ele><time>2026-04-02T07:08:48Z</time></trkpt><trkpt lat="43.12793711613957" lon="1.9427681539438784"><ele>368.5</ele><time>2026-04-02T07:08:49Z</time></trkpt><trkpt lat="43.12808353279966" lon="1.9430772663166018"><ele>370.0</ele><time>2026-04-02T07:08:50Z</time></trkpt><trkpt lat="43.12822867554165" lon="1.9433870335185703"><ele>374.5</ele><time>2026-04-02T07:08:51Z</time></trkpt><trkpt lat="43.12837053381595" lon="1.9436950073840418"><ele>379.0</ele><time>2026-04-02T07:08:52Z</time></trkpt><trkpt lat="43.128518262904265" lon="1.9440026138623319"><ele>378.5</ele><time>2026-04-02T07:08:53Z</time></trkpt><trkpt lat="43.12867313031852" lon="1.9443083659048204"><ele>378.0</ele><time>2026-04-02T07:08:54Z</time></trkpt><trkpt lat="43.12882834796599" lon="1.944613271827001"><ele>378.0</ele><time>2026-04-02T07:08:55Z</time></trkpt><trkpt lat="43.128996059979265" lon="1.9449085307988307"><ele>378.0</ele><time>2026-04-02T07:08:56Z</time></trkpt><trkpt lat="43.1291902478473" lon="1.945201195376539"><ele>380.5</ele><time>2026-04-02T07:08:57Z</time></trkpt><trkpt lat="43.129400351563945" lon="1.9454899747335834"><ele>383.0</ele><time>2026-04-02T07:08:58Z</time></trkpt><trkpt lat="43.12962326325009" lon="1.9457671427213348"><ele>382.5</ele><time>2026-04-02T07:08:59Z</time></trkpt><trkpt lat="43.12985059940605" lon="1.9460514102053224"><ele>382.0</ele><time>2026-04-02T07:09:00Z</time></trkpt><trkpt lat="43.130070649439155" lon="1.9463439228437622"><ele>378.5</ele><time>2026-04-02T07:09:01Z</time></trkpt><trkpt lat="43.13029731385866" lon="1.9466381213184616"><ele>375.0</ele><time>2026-04-02T07:09:02Z</time></trkpt><trkpt lat="43.13052332608408" lon="1.946932699309477"><ele>372.5</ele><time>2026-04-02T07:09:03Z</time></trkpt><trkpt lat="43.13075218998701" lon="1.9472250320500146"><ele>370.0</ele><time>2026-04-02T07:09:04Z</time></trkpt><trkpt lat="43.13098133738094" lon="1.9475150400600152"><ele>367.5</ele><time>2026-04-02T07:09:05Z</time></trkpt><trkpt lat="43.1312116532427" lon="1.9478059450787242"><ele>365.0</ele><time>2026-04-02T07:09:06Z</time></trkpt><trkpt lat="43.131438591186495" lon="1.9480957969601755"><ele>364.5</ele><time>2026-04-02T07:09:07Z</time></trkpt><trkpt lat="43.131663727000856" lon="1.9483865551590769"><ele>364.0</ele><time>2026-04-02T07:09:08Z</time></trkpt><trkpt lat="43.1318870142276" lon="1.9486740187992526"><ele>364.0</ele><time>2026-04-02T07:09:09Z</time></trkpt><trkpt lat="43.13210726327351" lon="1.9489582143317885"><ele>364.0</ele><time>2026-04-02T07:09:10Z</time></trkpt><trkpt lat="43.13232144353711" lon="1.9492407560041096"><ele>363.5</ele><time>2026-04-02T07:09:11Z</time></trkpt><trkpt lat="43.13253536819239" lon="1.9495254262362458"><ele>363.0</ele><time>2026-04-02T07:09:12Z</time></trkpt><trkpt lat="43.132750757550276" lon="1.949801365784339"><ele>364.0</ele><time>2026-04-02T07:09:13Z</time></trkpt><trkpt lat="43.1329753420101" lon="1.9500856469694359"><ele>365.0</ele><time>2026-04-02T07:09:14Z</time></trkpt><trkpt lat="43.1332013245402" lon="1.9503767290113394"><ele>364.5</ele><time>2026-04-02T07:09:15Z</time></trkpt><trkpt lat="43.13342929857243" lon="1.9506740431767498"><ele>364.0</ele><time>2026-04-02T07:09:16Z</time></trkpt><trkpt lat="43.133654584261755" lon="1.9509668862267915"><ele>365.0</ele><time>2026-04-02T07:09:17Z</time></trkpt><trkpt lat="43.13387874571793" lon="1.9512580092187775"><ele>366.0</ele><time>2026-04-02T07:09:18Z</time></trkpt><trkpt lat="43.13410408956273" lon="1.9515490982095123"><ele>364.0</ele><time>2026-04-02T07:09:19Z</time></trkpt><trkpt lat="43.134327180827555" lon="1.9518399327898537"><ele>362.0</ele><time>2026-04-02T07:09:20Z</time></trkpt><trkpt lat="43.134546014908764" lon="1.9521272795756868"><ele>362.0</ele><time>2026-04-02T07:09:21Z</time></trkpt><trkpt lat="43.13476513451962" lon="1.9524097006105054"><ele>362.0</ele><time>2026-04-02T07:09:22Z</time></trkpt><trkpt lat="43.13498193269806" lon="1.9526919877473905"><ele>361.5</ele><time>2026-04-02T07:09:23Z</time></trkpt><trkpt lat="43.13519734599951" lon="1.9529698974986163"><ele>361.0</ele><time>2026-04-02T07:09:24Z</time></trkpt><trkpt lat="43.13541282739826" lon="1.9532449224568225"><ele>359.0</ele><time>2026-04-02T07:09:25Z</time></trkpt><trkpt lat="43.13562624998621" lon="1.9535098670542965"><ele>357.0</ele><time>2026-04-02T07:09:26Z</time></trkpt><trkpt lat="43.13585328361397" lon="1.953752255943819"><ele>354.5</ele><time>2026-04-02T07:09:27Z</time></trkpt><trkpt lat="43.136090789605454" lon="1.9539681470631038"><ele>352.0</ele><time>2026-04-02T07:09:28Z</time></trkpt><trkpt lat="43.13633399967823" lon="1.9541634937243926"><ele>348.5</ele><time>2026-04-02T07:09:29Z</time></trkpt><trkpt lat="43.136580323032945" lon="1.9543500826011884"><ele>345.0</ele><time>2026-04-02T07:09:30Z</time></trkpt><trkpt lat="43.13682587925892" lon="1.9545422551268885"><ele>345.0</ele><time>2026-04-02T07:09:31Z</time></trkpt><trkpt lat="43.13706898952454" lon="1.95474509042472"><ele>345.0</ele><time>2026-04-02T07:09:32Z</time></trkpt><trkpt lat="43.137313841447614" lon="1.9549475372513923"><ele>344.0</ele><time>2026-04-02T07:09:33Z</time></trkpt><trkpt lat="43.13756229401414" lon="1.9551516488825338"><ele>343.0</ele><time>2026-04-02T07:09:34Z</time></trkpt><trkpt lat="43.13782091638095" lon="1.9553626786378822"><ele>343.0</ele><time>2026-04-02T07:09:35Z</time></trkpt><trkpt lat="43.13808079816192" lon="1.9555741220472322"><ele>343.0</ele><time>2026-04-02T07:09:36Z</time></trkpt><trkpt lat="43.138344027826605" lon="1.9557817644236086"><ele>342.0</ele><time>2026-04-02T07:09:37Z</time></trkpt><trkpt lat="43.13861156300176" lon="1.9559778330674493"><ele>341.0</ele><time>2026-04-02T07:09:38Z</time></trkpt><trkpt lat="43.138880202823934" lon="1.956153352611773"><ele>339.5</ele><time>2026-04-02T07:09:39Z</time></trkpt><trkpt lat="43.13915823338971" lon="1.95629214608914"><ele>338.0</ele><time>2026-04-02T07:09:40Z</time></trkpt><trkpt lat="43.139439323256944" lon="1.9563957587259415"><ele>338.0</ele><time>2026-04-02T07:09:41Z</time></trkpt><trkpt lat="43.13971996349193" lon="1.956473295524747"><ele>338.0</ele><time>2026-04-02T07:09:42Z</time></trkpt><trkpt lat="43.13999825050796" lon="1.9565322427008665"><ele>337.0</ele><time>2026-04-02T07:09:43Z</time></trkpt><trkpt lat="43.14026648188191" lon="1.9565586379888718"><ele>336.0</ele><time>2026-04-02T07:09:44Z</time></trkpt><trkpt lat="43.14050039840535" lon="1.956554824642859"><ele>336.0</ele><time>2026-04-02T07:09:45Z</time></trkpt><trkpt lat="43.140706458242654" lon="1.9565441698567227"><ele>336.0</ele><time>2026-04-02T07:09:46Z</time></trkpt><trkpt lat="43.14088977654893" lon="1.9565283995664506"><ele>336.0</ele><time>2026-04-02T07:09:47Z</time></trkpt><trkpt lat="43.141075808756405" lon="1.9565100563926752"><ele>335.0</ele><time>2026-04-02T07:09:48Z</time></trkpt><trkpt lat="43.14125534046414" lon="1.9564792219218294"><ele>334.0</ele><time>2026-04-02T07:09:49Z</time></trkpt><trkpt lat="43.141426096704855" lon="1.9564598737992835"><ele>333.0</ele><time>2026-04-02T07:09:50Z</time></trkpt><trkpt lat="43.14158630016362" lon="1.9564404811447318"><ele>332.3333333333333</ele><time>2026-04-02T07:09:51Z</time></trkpt><trkpt lat="43.14175290599539" lon="1.9564059063659247"><ele>331.66666666666663</ele><time>2026-04-02T07:09:52Z</time></trkpt><trkpt lat="43.141933498922896" lon="1.956346847699897"><ele>331.0</ele><time>2026-04-02T07:09:53Z</time></trkpt><trkpt lat="43.14211554953234" lon="1.956274780143106"><ele>331.0</ele><time>2026-04-02T07:09:54Z</time></trkpt><trkpt lat="43.14229050139214" lon="1.9561844939914712"><ele>331.0</ele><time>2026-04-02T07:09:55Z</time></trkpt><trkpt lat="43.14245434931078" lon="1.956066606434591"><ele>331.0</ele><time>2026-04-02T07:09:56Z</time></trkpt><trkpt lat="43.14261415366054" lon="1.9559167974269618"><ele>331.66666666666663</ele><time>2026-04-02T07:09:57Z</time></trkpt><trkpt lat="43.142752328510305" lon="1.9557730634311319"><ele>332.3333333333333</ele><time>2026-04-02T07:09:58Z</time></trkpt><trkpt lat="43.142878270723415" lon="1.9556426495998265"><ele>333.0</ele><time>2026-04-02T07:09:59Z</time></trkpt><trkpt lat="43.14299877601041" lon="1.9555242373683468"><ele>333.0</ele><time>2026-04-02T07:10:00Z</time></trkpt><trkpt lat="43.14312339893979" lon="1.9554137687104447"><ele>333.0</ele><time>2026-04-02T07:10:01Z</time></trkpt><trkpt lat="43.143268280366776" lon="1.955300818066792"><ele>333.0</ele><time>2026-04-02T07:10:02Z</time></trkpt><trkpt lat="43.1434248779315" lon="1.9551926409062672"><ele>333.3333333333333</ele><time>2026-04-02T07:10:03Z</time></trkpt><trkpt lat="43.143586967578514" lon="1.95510265647754"><ele>333.66666666666663</ele><time>2026-04-02T07:10:04Z</time></trkpt><trkpt lat="43.143755288345254" lon="1.9550309338200011"><ele>334.0</ele><time>2026-04-02T07:10:05Z</time></trkpt><trkpt lat="43.14392823497873" lon="1.9549795653409419"><ele>335.3333333333333</ele><time>2026-04-02T07:10:06Z</time></trkpt><trkpt lat="43.14410511141026" lon="1.954951210792695"><ele>336.6666666666667</ele><time>2026-04-02T07:10:07Z</time></trkpt><trkpt lat="43.14427251332019" lon="1.9549474427527387"><ele>338.0</ele><time>2026-04-02T07:10:08Z</time></trkpt><trkpt lat="43.144432723470516" lon="1.954961951976702"><ele>338.0</ele><time>2026-04-02T07:10:09Z</time></trkpt><trkpt lat="43.14459352426671" lon="1.9549940882819488"><ele>338.0</ele><time>2026-04-02T07:10:10Z</time></trkpt><trkpt lat="43.14475339008415" lon="1.9550430314691183"><ele>338.0</ele><time>2026-04-02T07:10:11Z</time></trkpt><trkpt lat="43.14490898746971" lon="1.9550984101212372"><ele>339.0</ele><time>2026-04-02T07:10:12Z</time></trkpt><trkpt lat="43.14505010387362" lon="1.9551453159140744"><ele>340.0</ele><time>2026-04-02T07:10:13Z</time></trkpt><trkpt lat="43.145178777755355" lon="1.9551889656285037"><ele>341.0</ele><time>2026-04-02T07:10:14Z</time></trkpt><trkpt lat="43.14529959815704" lon="1.955232703412034"><ele>342.0</ele><time>2026-04-02T07:10:15Z</time></trkpt><trkpt lat="43.1454169165921" lon="1.9552785974946418"><ele>342.0</ele><time>2026-04-02T07:10:16Z</time></trkpt><trkpt lat="43.14554803520471" lon="1.9553350916275"><ele>342.0</ele><time>2026-04-02T07:10:17Z</time></trkpt><trkpt lat="43.14568989332342" lon="1.9554080913236478"><ele>342.0</ele><time>2026-04-02T07:10:18Z</time></trkpt><trkpt lat="43.14584193929744" lon="1.9554958958000201"><ele>342.0</ele><time>2026-04-02T07:10:19Z</time></trkpt><trkpt lat="43.145990374140624" lon="1.9556026458076834"><ele>342.0</ele><time>2026-04-02T07:10:20Z</time></trkpt><trkpt lat="43.14613205130329" lon="1.9557180226872912"><ele>342.0</ele><time>2026-04-02T07:10:21Z</time></trkpt><trkpt lat="43.14625940770734" lon="1.9558461558087896"><ele>342.0</ele><time>2026-04-02T07:10:22Z</time></trkpt><trkpt lat="43.146376606898315" lon="1.955984277916679"><ele>342.0</ele><time>2026-04-02T07:10:23Z</time></trkpt><trkpt lat="43.146482249383745" lon="1.9561355879667819"><ele>342.0</ele><time>2026-04-02T07:10:24Z</time></trkpt><trkpt lat="43.14657591438954" lon="1.9562918066575687"><ele>342.0</ele><time>2026-04-02T07:10:25Z</time></trkpt><trkpt lat="43.1466601764235" lon="1.956452047979237"><ele>342.0</ele><time>2026-04-02T07:10:26Z</time></trkpt><trkpt lat="43.14673570343883" lon="1.956618235135784"><ele>342.0</ele><time>2026-04-02T07:10:27Z</time></trkpt><trkpt lat="43.14680120994626" lon="1.9567886242397743"><ele>342.0</ele><time>2026-04-02T07:10:28Z</time></trkpt><trkpt lat="43.146851065260364" lon="1.9569610867445468"><ele>342.5</ele><time>2026-04-02T07:10:29Z</time></trkpt><trkpt lat="43.146898899979774" lon="1.957129860231219"><ele>343.0</ele><time>2026-04-02T07:10:30Z</time></trkpt><trkpt lat="43.14693923908094" lon="1.9572990392793637"><ele>343.5</ele><time>2026-04-02T07:10:31Z</time></trkpt><trkpt lat="43.146972081834576" lon="1.957472087212564"><ele>344.0</ele><time>2026-04-02T07:10:32Z</time></trkpt><trkpt lat="43.14700146762417" lon="1.9576466246642639"><ele>344.75</ele><time>2026-04-02T07:10:33Z</time></trkpt><trkpt lat="43.1470250787943" lon="1.9578261308671867"><ele>345.5</ele><time>2026-04-02T07:10:34Z</time></trkpt><trkpt lat="43.14704961300275" lon="1.9580140470550695"><ele>346.25</ele><time>2026-04-02T07:10:35Z</time></trkpt><trkpt lat="43.14707771238221" lon="1.9582105105629863"><ele>347.0</ele><time>2026-04-02T07:10:36Z</time></trkpt><trkpt lat="43.147106970765094" lon="1.9584107211263984"><ele>347.6666666666667</ele><time>2026-04-02T07:10:37Z</time></trkpt><trkpt lat="43.1471321309023" lon="1.958615517386144"><ele>348.3333333333333</ele><time>2026-04-02T07:10:38Z</time></trkpt><trkpt lat="43.14715811241816" lon="1.9588192945735747"><ele>349.0</ele><time>2026-04-02T07:10:39Z</time></trkpt><trkpt lat="43.14718382910935" lon="1.9590241904606986"><ele>349.5</ele><time>2026-04-02T07:10:40Z</time></trkpt><trkpt lat="43.14721935621924" lon="1.9592235111694372"><ele>350.0</ele><time>2026-04-02T07:10:41Z</time></trkpt><trkpt lat="43.14726392429144" lon="1.959415310499087"><ele>350.5</ele><time>2026-04-02T07:10:42Z</time></trkpt><trkpt lat="43.147314055353554" lon="1.9596012187379708"><ele>351.0</ele><time>2026-04-02T07:10:43Z</time></trkpt><trkpt lat="43.14736545216868" lon="1.9597845301331973"><ele>351.5</ele><time>2026-04-02T07:10:44Z</time></trkpt><trkpt lat="43.14741810644407" lon="1.9599643348702664"><ele>352.0</ele><time>2026-04-02T07:10:45Z</time></trkpt><trkpt lat="43.14747635542617" lon="1.9601356032958472"><ele>352.5</ele><time>2026-04-02T07:10:46Z</time></trkpt><trkpt lat="43.14754419486586" lon="1.9602956255985604"><ele>353.0</ele><time>2026-04-02T07:10:47Z</time></trkpt><trkpt lat="43.14761715458871" lon="1.960449803572344"><ele>353.5</ele><time>2026-04-02T07:10:48Z</time></trkpt><trkpt lat="43.14770428467182" lon="1.9605902003114333"><ele>354.0</ele><time>2026-04-02T07:10:49Z</time></trkpt><trkpt lat="43.14779567415084" lon="1.9607220299097872"><ele>354.5</ele><time>2026-04-02T07:10:50Z</time></trkpt><trkpt lat="43.147893263726836" lon="1.9608431164591362"><ele>355.0</ele><time>2026-04-02T07:10:51Z</time></trkpt><trkpt lat="43.147997110743" lon="1.9609570063579178"><ele>356.25</ele><time>2026-04-02T07:10:52Z</time></trkpt><trkpt lat="43.14810177768142" lon="1.9610653226604176"><ele>357.5</ele><time>2026-04-02T07:10:53Z</time></trkpt><trkpt lat="43.148203078230715" lon="1.961167739670802"><ele>358.75</ele><time>2026-04-02T07:10:54Z</time></trkpt><trkpt lat="43.148291831863006" lon="1.9612615322959366"><ele>360.0</ele><time>2026-04-02T07:10:55Z</time></trkpt><trkpt lat="43.14837893709721" lon="1.9613487022276723"><ele>360.25</ele><time>2026-04-02T07:10:56Z</time></trkpt><trkpt lat="43.14846531504286" lon="1.9614493252421696"><ele>360.5</ele><time>2026-04-02T07:10:57Z</time></trkpt><trkpt lat="43.14855144800383" lon="1.961560046366296"><ele>360.75</ele><time>2026-04-02T07:10:58Z</time></trkpt><trkpt lat="43.14863660282508" lon="1.9616772204826536"><ele>361.0</ele><time>2026-04-02T07:10:59Z</time></trkpt><trkpt lat="43.14871898825756" lon="1.9618044254471314"><ele>361.5</ele><time>2026-04-02T07:11:00Z</time></trkpt><trkpt lat="43.14879699945817" lon="1.961943546673891"><ele>362.0</ele><time>2026-04-02T07:11:01Z</time></trkpt><trkpt lat="43.14886736847427" lon="1.9620938569608757"><ele>362.5</ele><time>2026-04-02T07:11:02Z</time></trkpt><trkpt lat="43.14893275961272" lon="1.9622574596867248"><ele>363.0</ele><time>2026-04-02T07:11:03Z</time></trkpt><trkpt lat="43.14899498048819" lon="1.9624273899400815"><ele>363.0</ele><time>2026-04-02T07:11:04Z</time></trkpt><trkpt lat="43.149050735030215" lon="1.9625908773877698"><ele>363.0</ele><time>2026-04-02T07:11:05Z</time></trkpt><trkpt lat="43.14910660724158" lon="1.9627675425109303"><ele>363.0</ele><time>2026-04-02T07:11:06Z</time></trkpt><trkpt lat="43.14916922903619" lon="1.9629553687708199"><ele>363.0</ele><time>2026-04-02T07:11:07Z</time></trkpt><trkpt lat="43.14923902769013" lon="1.9631441223123658"><ele>363.0</ele><time>2026-04-02T07:11:08Z</time></trkpt><trkpt lat="43.149320149060465" lon="1.9633312578310742"><ele>363.0</ele><time>2026-04-02T07:11:09Z</time></trkpt><trkpt lat="43.14941143370209" lon="1.9635114738868193"><ele>363.0</ele><time>2026-04-02T07:11:10Z</time></trkpt><trkpt lat="43.14950900096332" lon="1.9636958549168282"><ele>363.3333333333333</ele><time>2026-04-02T07:11:11Z</time></trkpt><trkpt lat="43.1496074365199" lon="1.9638775013456906"><ele>363.66666666666663</ele><time>2026-04-02T07:11:12Z</time></trkpt><trkpt lat="43.14971368515255" lon="1.9640630838642947"><ele>364.0</ele><time>2026-04-02T07:11:13Z</time></trkpt><trkpt lat="43.14982697318173" lon="1.9642400875512962"><ele>363.3333333333333</ele><time>2026-04-02T07:11:14Z</time></trkpt><trkpt lat="43.14995007929373" lon="1.9644094372140741"><ele>362.6666666666667</ele><time>2026-04-02T07:11:15Z</time></trkpt><trkpt lat="43.150081475621185" lon="1.9645728226783328"><ele>362.0</ele><time>2026-04-02T07:11:16Z</time></trkpt><trkpt lat="43.15021552854494" lon="1.964730657484586"><ele>362.0</ele><time>2026-04-02T07:11:17Z</time></trkpt><trkpt lat="43.150340197915284" lon="1.964877354371075"><ele>362.0</ele><time>2026-04-02T07:11:18Z</time></trkpt><trkpt lat="43.150462217341236" lon="1.9650157377698863"><ele>362.0</ele><time>2026-04-02T07:11:19Z</time></trkpt><trkpt lat="43.15058022834163" lon="1.9651414171856523"><ele>363.0</ele><time>2026-04-02T07:11:20Z</time></trkpt><trkpt lat="43.1506959532146" lon="1.9652616882165501"><ele>364.0</ele><time>2026-04-02T07:11:21Z</time></trkpt><trkpt lat="43.15081285924783" lon="1.9653873400874293"><ele>365.0</ele><time>2026-04-02T07:11:22Z</time></trkpt><trkpt lat="43.15093519379113" lon="1.9655233834958654"><ele>363.6666666666667</ele><time>2026-04-02T07:11:23Z</time></trkpt><trkpt lat="43.15105570881627" lon="1.965660694368099"><ele>362.3333333333333</ele><time>2026-04-02T07:11:24Z</time></trkpt><trkpt lat="43.151177453388115" lon="1.9657963735304755"><ele>361.0</ele><time>2026-04-02T07:11:25Z</time></trkpt><trkpt lat="43.15129627387922" lon="1.9659358402368121"><ele>361.0</ele><time>2026-04-02T07:11:26Z</time></trkpt><trkpt lat="43.15141579655126" lon="1.96608975350999"><ele>361.0</ele><time>2026-04-02T07:11:27Z</time></trkpt><trkpt lat="43.15151709645523" lon="1.966256193343007"><ele>361.0</ele><time>2026-04-02T07:11:28Z</time></trkpt><trkpt lat="43.151622520074106" lon="1.966439643256982"><ele>360.66666666666663</ele><time>2026-04-02T07:11:29Z</time></trkpt><trkpt lat="43.15171167529722" lon="1.9666303487422971"><ele>360.3333333333333</ele><time>2026-04-02T07:11:30Z</time></trkpt><trkpt lat="43.15179230353277" lon="1.9668337738469677"><ele>360.0</ele><time>2026-04-02T07:11:31Z</time></trkpt><trkpt lat="43.151859999684625" lon="1.9670477829802138"><ele>360.0</ele><time>2026-04-02T07:11:32Z</time></trkpt><trkpt lat="43.15191518097958" lon="1.9672697100315377"><ele>360.0</ele><time>2026-04-02T07:11:33Z</time></trkpt><trkpt lat="43.15195470729775" lon="1.9674962713178348"><ele>360.0</ele><time>2026-04-02T07:11:34Z</time></trkpt><trkpt lat="43.151981394004906" lon="1.96772449280623"><ele>359.3333333333333</ele><time>2026-04-02T07:11:35Z</time></trkpt><trkpt lat="43.15199154661403" lon="1.967954953215125"><ele>358.66666666666663</ele><time>2026-04-02T07:11:36Z</time></trkpt><trkpt lat="43.15198904136402" lon="1.9681816373674041"><ele>358.0</ele><time>2026-04-02T07:11:37Z</time></trkpt><trkpt lat="43.15197910285254" lon="1.968402417490631"><ele>357.0</ele><time>2026-04-02T07:11:38Z</time></trkpt><trkpt lat="43.151966607386925" lon="1.9686176346759472"><ele>356.0</ele><time>2026-04-02T07:11:39Z</time></trkpt><trkpt lat="43.1519581269571" lon="1.9688251967303385"><ele>355.0</ele><time>2026-04-02T07:11:40Z</time></trkpt><trkpt lat="43.15195397617279" lon="1.9690302919748164"><ele>354.0</ele><time>2026-04-02T07:11:41Z</time></trkpt><trkpt lat="43.15194963792441" lon="1.9692309929264058"><ele>353.0</ele><time>2026-04-02T07:11:42Z</time></trkpt><trkpt lat="43.15194276523409" lon="1.969428882292706"><ele>352.0</ele><time>2026-04-02T07:11:43Z</time></trkpt><trkpt lat="43.151933366346256" lon="1.9696329158674128"><ele>351.0</ele><time>2026-04-02T07:11:44Z</time></trkpt><trkpt lat="43.15192371650508" lon="1.9698439050849599"><ele>350.5</ele><time>2026-04-02T07:11:45Z</time></trkpt><trkpt lat="43.151919253898555" lon="1.9700465691933584"><ele>350.0</ele><time>2026-04-02T07:11:46Z</time></trkpt><trkpt lat="43.15191344123132" lon="1.9702497269900094"><ele>349.5</ele><time>2026-04-02T07:11:47Z</time></trkpt><trkpt lat="43.151903062185596" lon="1.9704561302284205"><ele>349.0</ele><time>2026-04-02T07:11:48Z</time></trkpt><trkpt lat="43.15190640387912" lon="1.9706736162820664"><ele>348.25</ele><time>2026-04-02T07:11:49Z</time></trkpt><trkpt lat="43.151912217803705" lon="1.9708806957909482"><ele>347.5</ele><time>2026-04-02T07:11:50Z</time></trkpt><trkpt lat="43.15194107935781" lon="1.971077969666038"><ele>346.75</ele><time>2026-04-02T07:11:51Z</time></trkpt><trkpt lat="43.15197316704813" lon="1.9712777173998435"><ele>346.0</ele><time>2026-04-02T07:11:52Z</time></trkpt><trkpt lat="43.15203364828357" lon="1.9715242087802245"><ele>345.3333333333333</ele><time>2026-04-02T07:11:53Z</time></trkpt><trkpt lat="43.15211140196013" lon="1.9717885797281574"><ele>344.6666666666667</ele><time>2026-04-02T07:11:54Z</time></trkpt><trkpt lat="43.15220537504577" lon="1.972084715127869"><ele>344.0</ele><time>2026-04-02T07:11:55Z</time></trkpt><trkpt lat="43.152311022384744" lon="1.972397471579329"><ele>342.5</ele><time>2026-04-02T07:11:56Z</time></trkpt><trkpt lat="43.15244000670238" lon="1.9727603480891718"><ele>341.0</ele><time>2026-04-02T07:11:57Z</time></trkpt><trkpt lat="43.15257035959389" lon="1.9731365956474933"><ele>341.0</ele><time>2026-04-02T07:11:58Z</time></trkpt><trkpt lat="43.15269174528435" lon="1.9735119674412904"><ele>341.0</ele><time>2026-04-02T07:11:59Z</time></trkpt><trkpt lat="43.152791161812644" lon="1.9738527003133512"><ele>341.0</ele><time>2026-04-02T07:12:00Z</time></trkpt><trkpt lat="43.15289993348225" lon="1.974181921685562"><ele>341.0</ele><time>2026-04-02T07:12:01Z</time></trkpt><trkpt lat="43.15301065528763" lon="1.9744931825036525"><ele>341.0</ele><time>2026-04-02T07:12:02Z</time></trkpt><trkpt lat="43.153107273128434" lon="1.974811094071623"><ele>341.0</ele><time>2026-04-02T07:12:03Z</time></trkpt><trkpt lat="43.15317942043811" lon="1.9751418201037831"><ele>339.5</ele><time>2026-04-02T07:12:04Z</time></trkpt><trkpt lat="43.15322705209139" lon="1.9754783910640978"><ele>338.0</ele><time>2026-04-02T07:12:05Z</time></trkpt><trkpt lat="43.15326942429838" lon="1.9758121669680433"><ele>338.0</ele><time>2026-04-02T07:12:06Z</time></trkpt><trkpt lat="43.153325832973536" lon="1.9761374047083045"><ele>338.0</ele><time>2026-04-02T07:12:07Z</time></trkpt><trkpt lat="43.15338833044475" lon="1.976454421561255"><ele>335.0</ele><time>2026-04-02T07:12:08Z</time></trkpt><trkpt lat="43.1534535947533" lon="1.9767674398111763"><ele>332.0</ele><time>2026-04-02T07:12:09Z</time></trkpt><trkpt lat="43.153528653040645" lon="1.977078349833266"><ele>332.0</ele><time>2026-04-02T07:12:10Z</time></trkpt><trkpt lat="43.15362193946067" lon="1.9773769384931996"><ele>332.0</ele><time>2026-04-02T07:12:11Z</time></trkpt><trkpt lat="43.1537222185159" lon="1.9776689651078034"><ele>332.0</ele><time>2026-04-02T07:12:12Z</time></trkpt><trkpt lat="43.15382526653383" lon="1.9779586658511301"><ele>332.0</ele><time>2026-04-02T07:12:13Z</time></trkpt><trkpt lat="43.15392672571103" lon="1.9782478331677695"><ele>331.0</ele><time>2026-04-02T07:12:14Z</time></trkpt><trkpt lat="43.15402405688372" lon="1.978538242161988"><ele>330.0</ele><time>2026-04-02T07:12:15Z</time></trkpt><trkpt lat="43.15412191254422" lon="1.9788300871649855"><ele>326.5</ele><time>2026-04-02T07:12:16Z</time></trkpt><trkpt lat="43.15424258518259" lon="1.9791146110539983"><ele>323.0</ele><time>2026-04-02T07:12:17Z</time></trkpt><trkpt lat="43.154393725333435" lon="1.9793796626608073"><ele>322.5</ele><time>2026-04-02T07:12:18Z</time></trkpt><trkpt lat="43.15457288585914" lon="1.9796222461077275"><ele>322.0</ele><time>2026-04-02T07:12:19Z</time></trkpt><trkpt lat="43.15477144067204" lon="1.9798540581781883"><ele>320.5</ele><time>2026-04-02T07:12:20Z</time></trkpt><trkpt lat="43.15497585238593" lon="1.980091318841957"><ele>319.0</ele><time>2026-04-02T07:12:21Z</time></trkpt><trkpt lat="43.15517121688493" lon="1.9803410984257759"><ele>319.0</ele><time>2026-04-02T07:12:22Z</time></trkpt><trkpt lat="43.155359026961975" lon="1.980587927879969"><ele>319.0</ele><time>2026-04-02T07:12:23Z</time></trkpt><trkpt lat="43.15554686309974" lon="1.9808281707001658"><ele>320.5</ele><time>2026-04-02T07:12:24Z</time></trkpt><trkpt lat="43.15572625818339" lon="1.9810718719512799"><ele>322.0</ele><time>2026-04-02T07:12:25Z</time></trkpt><trkpt lat="43.15589481853619" lon="1.9813181306209253"><ele>322.0</ele><time>2026-04-02T07:12:26Z</time></trkpt><trkpt lat="43.15605742909161" lon="1.98157037717901"><ele>322.0</ele><time>2026-04-02T07:12:27Z</time></trkpt><trkpt lat="43.1562096826615" lon="1.9818240540941725"><ele>328.5</ele><time>2026-04-02T07:12:28Z</time></trkpt><trkpt lat="43.15635630763893" lon="1.9820831139825852"><ele>335.0</ele><time>2026-04-02T07:12:29Z</time></trkpt><trkpt lat="43.15650183907352" lon="1.9823453553286183"><ele>327.0</ele><time>2026-04-02T07:12:30Z</time></trkpt><trkpt lat="43.156645197655905" lon="1.9826154143149792"><ele>319.0</ele><time>2026-04-02T07:12:31Z</time></trkpt><trkpt lat="43.156779982752866" lon="1.9829023507785979"><ele>319.0</ele><time>2026-04-02T07:12:32Z</time></trkpt><trkpt lat="43.1569184258321" lon="1.9831955049479237"><ele>319.0</ele><time>2026-04-02T07:12:33Z</time></trkpt><trkpt lat="43.15705518112983" lon="1.9834950988281355"><ele>319.0</ele><time>2026-04-02T07:12:34Z</time></trkpt><trkpt lat="43.157195632697075" lon="1.9837936601574215"><ele>319.0</ele><time>2026-04-02T07:12:35Z</time></trkpt><trkpt lat="43.157332133992064" lon="1.9840960057128116"><ele>323.5</ele><time>2026-04-02T07:12:36Z</time></trkpt><trkpt lat="43.157474831268345" lon="1.9843888023306284"><ele>328.0</ele><time>2026-04-02T07:12:37Z</time></trkpt><trkpt lat="43.15762248876876" lon="1.9846813076982626"><ele>328.0</ele><time>2026-04-02T07:12:38Z</time></trkpt><trkpt lat="43.157755310620445" lon="1.984977255465672"><ele>328.0</ele><time>2026-04-02T07:12:39Z</time></trkpt><trkpt lat="43.15789083260123" lon="1.9852719392392708"><ele>328.0</ele><time>2026-04-02T07:12:40Z</time></trkpt><trkpt lat="43.15803519989285" lon="1.9855676351091318"><ele>328.0</ele><time>2026-04-02T07:12:41Z</time></trkpt><trkpt lat="43.15818072123874" lon="1.9858697524244993"><ele>332.0</ele><time>2026-04-02T07:12:42Z</time></trkpt><trkpt lat="43.15832404547034" lon="1.9861780197281074"><ele>336.0</ele><time>2026-04-02T07:12:43Z</time></trkpt><trkpt lat="43.15846786845674" lon="1.986478467125937"><ele>336.0</ele><time>2026-04-02T07:12:44Z</time></trkpt><trkpt lat="43.15861160521575" lon="1.9867707167379405"><ele>336.0</ele><time>2026-04-02T07:12:45Z</time></trkpt><trkpt lat="43.15875294174112" lon="1.9870609002993074"><ele>336.0</ele><time>2026-04-02T07:12:46Z</time></trkpt><trkpt lat="43.15889093815707" lon="1.9873511043704204"><ele>336.0</ele><time>2026-04-02T07:12:47Z</time></trkpt><trkpt lat="43.1590286981778" lon="1.987639397833816"><ele>340.0</ele><time>2026-04-02T07:12:48Z</time></trkpt><trkpt lat="43.1591680311419" lon="1.987929285801117"><ele>344.0</ele><time>2026-04-02T07:12:49Z</time></trkpt><trkpt lat="43.15931135189138" lon="1.9882305922374273"><ele>344.0</ele><time>2026-04-02T07:12:50Z</time></trkpt><trkpt lat="43.15945880665923" lon="1.9885324882994342"><ele>344.0</ele><time>2026-04-02T07:12:51Z</time></trkpt><trkpt lat="43.15960796441424" lon="1.9888248253257386"><ele>344.0</ele><time>2026-04-02T07:12:52Z</time></trkpt><trkpt lat="43.15976325577204" lon="1.9891163680036112"><ele>344.0</ele><time>2026-04-02T07:12:53Z</time></trkpt><trkpt lat="43.1599341667713" lon="1.9893895341778676"><ele>348.0</ele><time>2026-04-02T07:12:54Z</time></trkpt><trkpt lat="43.160128234517735" lon="1.9896381757766413"><ele>352.0</ele><time>2026-04-02T07:12:55Z</time></trkpt><trkpt lat="43.16033915550708" lon="1.9898732109487198"><ele>351.5</ele><time>2026-04-02T07:12:56Z</time></trkpt><trkpt lat="43.16056553171263" lon="1.9900991594595827"><ele>351.0</ele><time>2026-04-02T07:12:57Z</time></trkpt><trkpt lat="43.16080023733508" lon="1.9903233785761676"><ele>353.0</ele><time>2026-04-02T07:12:58Z</time></trkpt><trkpt lat="43.161030407238535" lon="1.9905466777316787"><ele>355.0</ele><time>2026-04-02T07:12:59Z</time></trkpt><trkpt lat="43.16126098762836" lon="1.990770606719416"><ele>353.5</ele><time>2026-04-02T07:13:00Z</time></trkpt><trkpt lat="43.161492388352585" lon="1.9909927391381883"><ele>352.0</ele><time>2026-04-02T07:13:01Z</time></trkpt><trkpt lat="43.16172196104598" lon="1.991215432938471"><ele>351.5</ele><time>2026-04-02T07:13:02Z</time></trkpt><trkpt lat="43.16195251664698" lon="1.9914333841983793"><ele>351.0</ele><time>2026-04-02T07:13:03Z</time></trkpt><trkpt lat="43.16218456707401" lon="1.9916520765348344"><ele>350.5</ele><time>2026-04-02T07:13:04Z</time></trkpt><trkpt lat="43.162413258256784" lon="1.9918733335607373"><ele>350.0</ele><time>2026-04-02T07:13:05Z</time></trkpt><trkpt lat="43.162645829019546" lon="1.9920976680472056"><ele>350.0</ele><time>2026-04-02T07:13:06Z</time></trkpt><trkpt lat="43.16288116591994" lon="1.9923202890895952"><ele>350.0</ele><time>2026-04-02T07:13:07Z</time></trkpt><trkpt lat="43.163116759136486" lon="1.9925400690743882"><ele>350.5</ele><time>2026-04-02T07:13:08Z</time></trkpt><trkpt lat="43.163351458904174" lon="1.99276367541968"><ele>351.0</ele><time>2026-04-02T07:13:09Z</time></trkpt><trkpt lat="43.16358168480616" lon="1.9929930246157406"><ele>351.0</ele><time>2026-04-02T07:13:10Z</time></trkpt><trkpt lat="43.163810284289035" lon="1.993220396983586"><ele>351.0</ele><time>2026-04-02T07:13:11Z</time></trkpt><trkpt lat="43.16403865529962" lon="1.9934372533493891"><ele>350.5</ele><time>2026-04-02T07:13:12Z</time></trkpt><trkpt lat="43.16426363507882" lon="1.9936496532317018"><ele>350.0</ele><time>2026-04-02T07:13:13Z</time></trkpt><trkpt lat="43.16448420842122" lon="1.9938587524080345"><ele>350.0</ele><time>2026-04-02T07:13:14Z</time></trkpt><trkpt lat="43.16469784611418" lon="1.994062719228248"><ele>350.0</ele><time>2026-04-02T07:13:15Z</time></trkpt><trkpt lat="43.16491292445344" lon="1.9942657809903324"><ele>352.5</ele><time>2026-04-02T07:13:16Z</time></trkpt><trkpt lat="43.16513892409502" lon="1.9944722072010501"><ele>355.0</ele><time>2026-04-02T07:13:17Z</time></trkpt><trkpt lat="43.165368889754404" lon="1.994681294935414"><ele>355.0</ele><time>2026-04-02T07:13:18Z</time></trkpt><trkpt lat="43.165597943557806" lon="1.9948886030679347"><ele>355.0</ele><time>2026-04-02T07:13:19Z</time></trkpt><trkpt lat="43.16582815080421" lon="1.9950899003059333"><ele>353.0</ele><time>2026-04-02T07:13:20Z</time></trkpt><trkpt lat="43.16606059908287" lon="1.9952850570097733"><ele>351.0</ele><time>2026-04-02T07:13:21Z</time></trkpt><trkpt lat="43.1662912664667" lon="1.9954796373797898"><ele>351.0</ele><time>2026-04-02T07:13:22Z</time></trkpt><trkpt lat="43.16651972026171" lon="1.9956730545657835"><ele>351.0</ele><time>2026-04-02T07:13:23Z</time></trkpt><trkpt lat="43.16675009921812" lon="1.9958739784223773"><ele>348.5</ele><time>2026-04-02T07:13:24Z</time></trkpt><trkpt lat="43.16698023871854" lon="1.996086253339749"><ele>346.0</ele><time>2026-04-02T07:13:25Z</time></trkpt><trkpt lat="43.167207205427005" lon="1.996305081464179"><ele>342.5</ele><time>2026-04-02T07:13:26Z</time></trkpt><trkpt lat="43.16743470769671" lon="1.9965281097070393"><ele>339.0</ele><time>2026-04-02T07:13:27Z</time></trkpt><trkpt lat="43.16765742802526" lon="1.9967632610038646"><ele>339.0</ele><time>2026-04-02T07:13:28Z</time></trkpt><trkpt lat="43.16787623580724" lon="1.9970076010287683"><ele>339.0</ele><time>2026-04-02T07:13:29Z</time></trkpt><trkpt lat="43.168094668986996" lon="1.9972553347411808"><ele>334.0</ele><time>2026-04-02T07:13:30Z</time></trkpt><trkpt lat="43.16830956453216" lon="1.9975120757661033"><ele>329.0</ele><time>2026-04-02T07:13:31Z</time></trkpt><trkpt lat="43.16851967194535" lon="1.9977747882932557"><ele>329.0</ele><time>2026-04-02T07:13:32Z</time></trkpt><trkpt lat="43.16872385423051" lon="1.9980453657732364"><ele>329.0</ele><time>2026-04-02T07:13:33Z</time></trkpt><trkpt lat="43.168920354653764" lon="1.9983225555451456"><ele>326.0</ele><time>2026-04-02T07:13:34Z</time></trkpt><trkpt lat="43.169115393720666" lon="1.9986004798789314"><ele>323.0</ele><time>2026-04-02T07:13:35Z</time></trkpt><trkpt lat="43.1693087705627" lon="1.9988822370180193"><ele>323.0</ele><time>2026-04-02T07:13:36Z</time></trkpt><trkpt lat="43.169495149384126" lon="1.999173434953585"><ele>323.0</ele><time>2026-04-02T07:13:37Z</time></trkpt><trkpt lat="43.16967418564752" lon="1.999468614524635"><ele>323.0</ele><time>2026-04-02T07:13:38Z</time></trkpt><trkpt lat="43.16985115631235" lon="1.9997643941335208"><ele>323.0</ele><time>2026-04-02T07:13:39Z</time></trkpt><trkpt lat="43.17002664621683" lon="2.000062521934672"><ele>323.5</ele><time>2026-04-02T07:13:40Z</time></trkpt><trkpt lat="43.1701971789741" lon="2.000365060919494"><ele>324.0</ele><time>2026-04-02T07:13:41Z</time></trkpt><trkpt lat="43.17035912989409" lon="2.0006755741163693"><ele>325.0</ele><time>2026-04-02T07:13:42Z</time></trkpt><trkpt lat="43.17051822085043" lon="2.0010090713728395"><ele>326.0</ele><time>2026-04-02T07:13:43Z</time></trkpt><trkpt lat="43.17067579141872" lon="2.001350734343366"><ele>326.5</ele><time>2026-04-02T07:13:44Z</time></trkpt><trkpt lat="43.17083086370473" lon="2.001695562878377"><ele>327.0</ele><time>2026-04-02T07:13:45Z</time></trkpt><trkpt lat="43.17098330778434" lon="2.002047968671215"><ele>327.0</ele><time>2026-04-02T07:13:46Z</time></trkpt><trkpt lat="43.17113004888549" lon="2.0024026743478878"><ele>327.0</ele><time>2026-04-02T07:13:47Z</time></trkpt><trkpt lat="43.17127504802885" lon="2.00275542799026"><ele>327.0</ele><time>2026-04-02T07:13:48Z</time></trkpt><trkpt lat="43.17141927360032" lon="2.0031049054897228"><ele>327.0</ele><time>2026-04-02T07:13:49Z</time></trkpt><trkpt lat="43.17156114652687" lon="2.003455905925682"><ele>325.0</ele><time>2026-04-02T07:13:50Z</time></trkpt><trkpt lat="43.17169994616777" lon="2.0038042703184265"><ele>323.0</ele><time>2026-04-02T07:13:51Z</time></trkpt><trkpt lat="43.171838611850184" lon="2.0041481200926405"><ele>324.0</ele><time>2026-04-02T07:13:52Z</time></trkpt><trkpt lat="43.17198108810755" lon="2.004494045074184"><ele>325.0</ele><time>2026-04-02T07:13:53Z</time></trkpt><trkpt lat="43.172120120443765" lon="2.0048448975740754"><ele>327.0</ele><time>2026-04-02T07:13:54Z</time></trkpt><trkpt lat="43.17225239329344" lon="2.0051884406332134"><ele>329.0</ele><time>2026-04-02T07:13:55Z</time></trkpt><trkpt lat="43.17238761312705" lon="2.0055217957749623"><ele>329.5</ele><time>2026-04-02T07:13:56Z</time></trkpt><trkpt lat="43.17252535931313" lon="2.005853419778195"><ele>330.0</ele><time>2026-04-02T07:13:57Z</time></trkpt><trkpt lat="43.17265969655978" lon="2.006190377749473"><ele>330.0</ele><time>2026-04-02T07:13:58Z</time></trkpt><trkpt lat="43.17278942322302" lon="2.0065284349837578"><ele>330.0</ele><time>2026-04-02T07:13:59Z</time></trkpt><trkpt lat="43.172916807089074" lon="2.0068630491338513"><ele>331.0</ele><time>2026-04-02T07:14:00Z</time></trkpt><trkpt lat="43.173050045028866" lon="2.007205095898409"><ele>332.0</ele><time>2026-04-02T07:14:01Z</time></trkpt><trkpt lat="43.17318180942848" lon="2.0075448768578017"><ele>330.5</ele><time>2026-04-02T07:14:02Z</time></trkpt><trkpt lat="43.17331127480331" lon="2.0078888830552546"><ele>329.0</ele><time>2026-04-02T07:14:03Z</time></trkpt><trkpt lat="43.17344022188983" lon="2.0082321682561752"><ele>329.0</ele><time>2026-04-02T07:14:04Z</time></trkpt><trkpt lat="43.17357181102376" lon="2.0085734466037177"><ele>329.0</ele><time>2026-04-02T07:14:05Z</time></trkpt><trkpt lat="43.17370188478492" lon="2.008912406122352"><ele>329.0</ele><time>2026-04-02T07:14:06Z</time></trkpt><trkpt lat="43.17383343754491" lon="2.0092524425965195"><ele>329.0</ele><time>2026-04-02T07:14:07Z</time></trkpt><trkpt lat="43.17396832843427" lon="2.009590758797253"><ele>325.0</ele><time>2026-04-02T07:14:08Z</time></trkpt><trkpt lat="43.17410802139852" lon="2.009928898589549"><ele>321.0</ele><time>2026-04-02T07:14:09Z</time></trkpt><trkpt lat="43.17424019468631" lon="2.0102768821236054"><ele>320.5</ele><time>2026-04-02T07:14:10Z</time></trkpt><trkpt lat="43.17436607807512" lon="2.010631530550374"><ele>320.0</ele><time>2026-04-02T07:14:11Z</time></trkpt><trkpt lat="43.174493443872635" lon="2.0109941308670893"><ele>319.5</ele><time>2026-04-02T07:14:12Z</time></trkpt><trkpt lat="43.17463401120443" lon="2.011361375682847"><ele>319.0</ele><time>2026-04-02T07:14:13Z</time></trkpt><trkpt lat="43.17478033627883" lon="2.011746550292587"><ele>317.5</ele><time>2026-04-02T07:14:14Z</time></trkpt><trkpt lat="43.17493078886727" lon="2.0121407008365146"><ele>316.0</ele><time>2026-04-02T07:14:15Z</time></trkpt><trkpt lat="43.175086651964804" lon="2.0125416712800033"><ele>316.0</ele><time>2026-04-02T07:14:16Z</time></trkpt><trkpt lat="43.17524377117103" lon="2.0129457396905734"><ele>316.0</ele><time>2026-04-02T07:14:17Z</time></trkpt><trkpt lat="43.17539912342708" lon="2.0133562886039154"><ele>317.0</ele><time>2026-04-02T07:14:18Z</time></trkpt><trkpt lat="43.1755570754173" lon="2.0137690734480738"><ele>318.0</ele><time>2026-04-02T07:14:19Z</time></trkpt><trkpt lat="43.17571583648018" lon="2.0141786226096565"><ele>320.5</ele><time>2026-04-02T07:14:20Z</time></trkpt><trkpt lat="43.17587348514424" lon="2.0145859951027516"><ele>323.0</ele><time>2026-04-02T07:14:21Z</time></trkpt><trkpt lat="43.176031538484466" lon="2.014995764914516"><ele>323.0</ele><time>2026-04-02T07:14:22Z</time></trkpt><trkpt lat="43.17618358507722" lon="2.015396648641624"><ele>323.0</ele><time>2026-04-02T07:14:23Z</time></trkpt><trkpt lat="43.17633176031514" lon="2.0157865404332944"><ele>323.5</ele><time>2026-04-02T07:14:24Z</time></trkpt><trkpt lat="43.176480828100736" lon="2.016173030816615"><ele>324.0</ele><time>2026-04-02T07:14:25Z</time></trkpt><trkpt lat="43.17663094329681" lon="2.0165656828093885"><ele>327.0</ele><time>2026-04-02T07:14:26Z</time></trkpt><trkpt lat="43.176781399106595" lon="2.016949547030912"><ele>330.0</ele><time>2026-04-02T07:14:27Z</time></trkpt><trkpt lat="43.17692671826011" lon="2.0173219616811155"><ele>330.5</ele><time>2026-04-02T07:14:28Z</time></trkpt><trkpt lat="43.177071798368466" lon="2.0176989848852105"><ele>331.0</ele><time>2026-04-02T07:14:29Z</time></trkpt><trkpt lat="43.17722290808485" lon="2.018086605452279"><ele>331.0</ele><time>2026-04-02T07:14:30Z</time></trkpt><trkpt lat="43.17737283497662" lon="2.0184741554249914"><ele>331.0</ele><time>2026-04-02T07:14:31Z</time></trkpt><trkpt lat="43.17752148186925" lon="2.018857490956164"><ele>331.0</ele><time>2026-04-02T07:14:32Z</time></trkpt><trkpt lat="43.17767357164532" lon="2.019225274330323"><ele>331.0</ele><time>2026-04-02T07:14:33Z</time></trkpt><trkpt lat="43.17783018386332" lon="2.019598582414536"><ele>331.0</ele><time>2026-04-02T07:14:34Z</time></trkpt><trkpt lat="43.177980974706024" lon="2.019975413576203"><ele>331.0</ele><time>2026-04-02T07:14:35Z</time></trkpt><trkpt lat="43.17812640109677" lon="2.020352720930087"><ele>331.0</ele><time>2026-04-02T07:14:36Z</time></trkpt><trkpt lat="43.178271481493375" lon="2.020720835111567"><ele>331.0</ele><time>2026-04-02T07:14:37Z</time></trkpt><trkpt lat="43.17841316178137" lon="2.0210806830268857"><ele>331.0</ele><time>2026-04-02T07:14:38Z</time></trkpt><trkpt lat="43.17854456232572" lon="2.0214356536833566"><ele>331.0</ele><time>2026-04-02T07:14:39Z</time></trkpt><trkpt lat="43.178689889265364" lon="2.0217848861309924"><ele>330.5</ele><time>2026-04-02T07:14:40Z</time></trkpt><trkpt lat="43.178822206238486" lon="2.0221293847265556"><ele>330.0</ele><time>2026-04-02T07:14:41Z</time></trkpt><trkpt lat="43.1789548293368" lon="2.0224836107002426"><ele>331.0</ele><time>2026-04-02T07:14:42Z</time></trkpt><trkpt lat="43.179087458787556" lon="2.022840890156797"><ele>332.0</ele><time>2026-04-02T07:14:43Z</time></trkpt><trkpt lat="43.17922201518591" lon="2.0232006514149035"><ele>332.0</ele><time>2026-04-02T07:14:44Z</time></trkpt><trkpt lat="43.179358426671946" lon="2.0235607154967217"><ele>332.0</ele><time>2026-04-02T07:14:45Z</time></trkpt><trkpt lat="43.179495319505094" lon="2.0239225478859955"><ele>333.0</ele><time>2026-04-02T07:14:46Z</time></trkpt><trkpt lat="43.17962997852638" lon="2.0242837373237323"><ele>334.0</ele><time>2026-04-02T07:14:47Z</time></trkpt><trkpt lat="43.179773547701224" lon="2.024653352898414"><ele>335.5</ele><time>2026-04-02T07:14:48Z</time></trkpt><trkpt lat="43.179924039863195" lon="2.025030721661403"><ele>337.0</ele><time>2026-04-02T07:14:49Z</time></trkpt><trkpt lat="43.18007404568457" lon="2.025423768269652"><ele>338.0</ele><time>2026-04-02T07:14:50Z</time></trkpt><trkpt lat="43.18021816891152" lon="2.0258369751297103"><ele>339.0</ele><time>2026-04-02T07:14:51Z</time></trkpt><trkpt lat="43.18036849604965" lon="2.0262513372887963"><ele>340.5</ele><time>2026-04-02T07:14:52Z</time></trkpt><trkpt lat="43.18052971615598" lon="2.0266709858758745"><ele>342.0</ele><time>2026-04-02T07:14:53Z</time></trkpt><trkpt lat="43.18068721489313" lon="2.027092503794015"><ele>339.0</ele><time>2026-04-02T07:14:54Z</time></trkpt><trkpt lat="43.18084339663842" lon="2.027508497762634"><ele>336.0</ele><time>2026-04-02T07:14:55Z</time></trkpt><trkpt lat="43.18100346898679" lon="2.027919902770005"><ele>336.5</ele><time>2026-04-02T07:14:56Z</time></trkpt><trkpt lat="43.181155957377314" lon="2.0283285631091608"><ele>337.0</ele><time>2026-04-02T07:14:57Z</time></trkpt><trkpt lat="43.18130613946192" lon="2.0287285404443742"><ele>337.0</ele><time>2026-04-02T07:14:58Z</time></trkpt><trkpt lat="43.181456612597934" lon="2.0291160476929906"><ele>337.0</ele><time>2026-04-02T07:14:59Z</time></trkpt><trkpt lat="43.18160601190096" lon="2.0294951894766733"><ele>338.5</ele><time>2026-04-02T07:15:00Z</time></trkpt><trkpt lat="43.181747944296966" lon="2.0298783497485298"><ele>340.0</ele><time>2026-04-02T07:15:01Z</time></trkpt><trkpt lat="43.181894121558756" lon="2.0302162607758176"><ele>340.5</ele><time>2026-04-02T07:15:02Z</time></trkpt><trkpt lat="43.18204115317674" lon="2.0305472248450767"><ele>341.0</ele><time>2026-04-02T07:15:03Z</time></trkpt><trkpt lat="43.182168890920664" lon="2.030899133936212"><ele>342.5</ele><time>2026-04-02T07:15:04Z</time></trkpt><trkpt lat="43.182287092358436" lon="2.0311890261677705"><ele>344.0</ele><time>2026-04-02T07:15:05Z</time></trkpt><trkpt lat="43.182393071447805" lon="2.0314509317377243"><ele>345.0</ele><time>2026-04-02T07:15:06Z</time></trkpt><trkpt lat="43.18246944448352" lon="2.031647159922502"><ele>346.0</ele><time>2026-04-02T07:15:07Z</time></trkpt><trkpt lat="43.18252851246627" lon="2.031809590471896"><ele>347.0</ele><time>2026-04-02T07:15:08Z</time></trkpt><trkpt lat="43.182590401757096" lon="2.0319785268022286"><ele>348.0</ele><time>2026-04-02T07:15:09Z</time></trkpt><trkpt lat="43.18266758782259" lon="2.032175004952888"><ele>348.0</ele><time>2026-04-02T07:15:10Z</time></trkpt><trkpt lat="43.182756724438086" lon="2.0324028331743134"><ele>348.0</ele><time>2026-04-02T07:15:11Z</time></trkpt><trkpt lat="43.182845533677224" lon="2.0326534876951894"><ele>348.0</ele><time>2026-04-02T07:15:12Z</time></trkpt><trkpt lat="43.18290937968356" lon="2.032910851748148"><ele>348.0</ele><time>2026-04-02T07:15:13Z</time></trkpt><trkpt lat="43.182940737951554" lon="2.033182023172405"><ele>348.0</ele><time>2026-04-02T07:15:14Z</time></trkpt><trkpt lat="43.182949758012285" lon="2.033444229836327"><ele>348.0</ele><time>2026-04-02T07:15:15Z</time></trkpt><trkpt lat="43.1829708235838" lon="2.033688047420904"><ele>348.6666666666667</ele><time>2026-04-02T07:15:16Z</time></trkpt><trkpt lat="43.183001422169696" lon="2.033907390935866"><ele>349.33333333333337</ele><time>2026-04-02T07:15:17Z</time></trkpt><trkpt lat="43.18305961417927" lon="2.0340947636155184"><ele>350.0</ele><time>2026-04-02T07:15:18Z</time></trkpt><trkpt lat="43.18315447594914" lon="2.0342384034463996"><ele>346.6666666666667</ele><time>2026-04-02T07:15:19Z</time></trkpt><trkpt lat="43.18328559611446" lon="2.0343170098678742"><ele>343.3333333333333</ele><time>2026-04-02T07:15:20Z</time></trkpt><trkpt lat="43.18343069916803" lon="2.0343445813235834"><ele>340.0</ele><time>2026-04-02T07:15:21Z</time></trkpt><trkpt lat="43.18360895409052" lon="2.0343270177077923"><ele>340.0</ele><time>2026-04-02T07:15:22Z</time></trkpt><trkpt lat="43.183793777346665" lon="2.0343055013508717"><ele>340.0</ele><time>2026-04-02T07:15:23Z</time></trkpt><trkpt lat="43.18397163876491" lon="2.0343013108686665"><ele>340.0</ele><time>2026-04-02T07:15:24Z</time></trkpt><trkpt lat="43.1841304592005" lon="2.0343117958142103"><ele>338.0</ele><time>2026-04-02T07:15:25Z</time></trkpt><trkpt lat="43.18427892128595" lon="2.0343227126527856"><ele>336.0</ele><time>2026-04-02T07:15:26Z</time></trkpt><trkpt lat="43.1844141136245" lon="2.0343323397619946"><ele>334.0</ele><time>2026-04-02T07:15:27Z</time></trkpt><trkpt lat="43.18454594907864" lon="2.0343448570328344"><ele>332.0</ele><time>2026-04-02T07:15:28Z</time></trkpt><trkpt lat="43.18466864953265" lon="2.0343656192175557"><ele>332.0</ele><time>2026-04-02T07:15:29Z</time></trkpt><trkpt lat="43.184786398341735" lon="2.0344071643734085"><ele>332.0</ele><time>2026-04-02T07:15:30Z</time></trkpt><trkpt lat="43.18488578606332" lon="2.034439211807192"><ele>332.0</ele><time>2026-04-02T07:15:31Z</time></trkpt><trkpt lat="43.18496877477019" lon="2.0344649942630935"><ele>332.0</ele><time>2026-04-02T07:15:32Z</time></trkpt><trkpt lat="43.18503969012732" lon="2.0345178621715974"><ele>332.0</ele><time>2026-04-02T07:15:33Z</time></trkpt><trkpt lat="43.18509771906479" lon="2.0345904554549037"><ele>331.83333333333337</ele><time>2026-04-02T07:15:34Z</time></trkpt><trkpt lat="43.18514141765267" lon="2.03467336943334"><ele>331.6666666666667</ele><time>2026-04-02T07:15:35Z</time></trkpt><trkpt lat="43.1851641602796" lon="2.0347684496215384"><ele>331.5</ele><time>2026-04-02T07:15:36Z</time></trkpt><trkpt lat="43.18515844771369" lon="2.034874254442437"><ele>331.3333333333333</ele><time>2026-04-02T07:15:37Z</time></trkpt><trkpt lat="43.185138703745544" lon="2.0349952634770045"><ele>331.16666666666663</ele><time>2026-04-02T07:15:38Z</time></trkpt><trkpt lat="43.18516632460115" lon="2.0351183653710683"><ele>331.0</ele><time>2026-04-02T07:15:39Z</time></trkpt><trkpt lat="43.18519272465913" lon="2.0352363197162195"><ele>331.5</ele><time>2026-04-02T07:15:40Z</time></trkpt><trkpt lat="43.185223824617296" lon="2.035382222436381"><ele>332.0</ele><time>2026-04-02T07:15:41Z</time></trkpt><trkpt lat="43.18527319266543" lon="2.035579598307047"><ele>332.5</ele><time>2026-04-02T07:15:42Z</time></trkpt><trkpt lat="43.185307912086124" lon="2.035787340198096"><ele>333.0</ele><time>2026-04-02T07:15:43Z</time></trkpt><trkpt lat="43.1853312740774" lon="2.0359627349843348"><ele>332.0</ele><time>2026-04-02T07:15:44Z</time></trkpt><trkpt lat="43.18532158270766" lon="2.0361192059446984"><ele>331.0</ele><time>2026-04-02T07:15:45Z</time></trkpt><trkpt lat="43.18527083008393" lon="2.036263288265431"><ele>330.0</ele><time>2026-04-02T07:15:46Z</time></trkpt><trkpt lat="43.18517179795461" lon="2.0363643928236113"><ele>329.0</ele><time>2026-04-02T07:15:47Z</time></trkpt><trkpt lat="43.18503738230412" lon="2.0364311360961964"><ele>329.0</ele><time>2026-04-02T07:15:48Z</time></trkpt><trkpt lat="43.18489515488135" lon="2.0364591773698657"><ele>329.0</ele><time>2026-04-02T07:15:49Z</time></trkpt><trkpt lat="43.18474407151982" lon="2.0364928136340588"><ele>329.0</ele><time>2026-04-02T07:15:50Z</time></trkpt><trkpt lat="43.18459174117046" lon="2.036595250138141"><ele>328.33333333333337</ele><time>2026-04-02T07:15:51Z</time></trkpt><trkpt lat="43.18444518648339" lon="2.0367637062635446"><ele>327.6666666666667</ele><time>2026-04-02T07:15:52Z</time></trkpt><trkpt lat="43.184310074466836" lon="2.0369656582125164"><ele>327.0</ele><time>2026-04-02T07:15:53Z</time></trkpt><trkpt lat="43.18418958605609" lon="2.037178225786603"><ele>327.0</ele><time>2026-04-02T07:15:54Z</time></trkpt><trkpt lat="43.18407134386544" lon="2.0373777063887184"><ele>327.0</ele><time>2026-04-02T07:15:55Z</time></trkpt><trkpt lat="43.18395248302829" lon="2.0375517901834894"><ele>327.0</ele><time>2026-04-02T07:15:56Z</time></trkpt><trkpt lat="43.183841924173265" lon="2.0377307797308357"><ele>325.0</ele><time>2026-04-02T07:15:57Z</time></trkpt><trkpt lat="43.18373239656495" lon="2.03790347409175"><ele>323.0</ele><time>2026-04-02T07:15:58Z</time></trkpt><trkpt lat="43.18361829813502" lon="2.0380626474783154"><ele>321.0</ele><time>2026-04-02T07:15:59Z</time></trkpt><trkpt lat="43.18349770894172" lon="2.0382131135604564"><ele>316.3333333333333</ele><time>2026-04-02T07:16:00Z</time></trkpt><trkpt lat="43.18334916009238" lon="2.0383166927182788"><ele>311.66666666666663</ele><time>2026-04-02T07:16:01Z</time></trkpt><trkpt lat="43.18318631463667" lon="2.038403861205439"><ele>307.0</ele><time>2026-04-02T07:16:02Z</time></trkpt><trkpt lat="43.18300188499513" lon="2.038481979245399"><ele>307.0</ele><time>2026-04-02T07:16:03Z</time></trkpt><trkpt lat="43.182807004794924" lon="2.0385678578618203"><ele>307.0</ele><time>2026-04-02T07:16:04Z</time></trkpt><trkpt lat="43.18260592186018" lon="2.038641569504125"><ele>307.0</ele><time>2026-04-02T07:16:05Z</time></trkpt><trkpt lat="43.18240305665954" lon="2.038732745022627"><ele>308.0</ele><time>2026-04-02T07:16:06Z</time></trkpt><trkpt lat="43.18220467077746" lon="2.0388182934233536"><ele>309.0</ele><time>2026-04-02T07:16:07Z</time></trkpt><trkpt lat="43.18200151018816" lon="2.038901236506463"><ele>310.0</ele><time>2026-04-02T07:16:08Z</time></trkpt><trkpt lat="43.18179517267783" lon="2.0389876767741453"><ele>310.0</ele><time>2026-04-02T07:16:09Z</time></trkpt><trkpt lat="43.181588408889205" lon="2.039071168301833"><ele>310.0</ele><time>2026-04-02T07:16:10Z</time></trkpt><trkpt lat="43.18138036983975" lon="2.0391553127912507"><ele>310.0</ele><time>2026-04-02T07:16:11Z</time></trkpt><trkpt lat="43.18117584400408" lon="2.039241436045554"><ele>308.0</ele><time>2026-04-02T07:16:12Z</time></trkpt><trkpt lat="43.18097620338743" lon="2.0393450687698733"><ele>306.0</ele><time>2026-04-02T07:16:13Z</time></trkpt><trkpt lat="43.18076673016836" lon="2.039458985725474"><ele>304.0</ele><time>2026-04-02T07:16:14Z</time></trkpt><trkpt lat="43.180568365774064" lon="2.0395688494131115"><ele>304.0</ele><time>2026-04-02T07:16:15Z</time></trkpt><trkpt lat="43.180378649052464" lon="2.039671266212459"><ele>304.0</ele><time>2026-04-02T07:16:16Z</time></trkpt><trkpt lat="43.18021032088723" lon="2.0397652245829705"><ele>304.0</ele><time>2026-04-02T07:16:17Z</time></trkpt><trkpt lat="43.18007117768392" lon="2.0398844288179334"><ele>303.2</ele><time>2026-04-02T07:16:18Z</time></trkpt><trkpt lat="43.17998669070649" lon="2.0400270984488036"><ele>302.4</ele><time>2026-04-02T07:16:19Z</time></trkpt><trkpt lat="43.17993177763565" lon="2.0400858744391814"><ele>301.6</ele><time>2026-04-02T07:16:20Z</time></trkpt><trkpt lat="43.17984840383303" lon="2.040169921088959"><ele>300.8</ele><time>2026-04-02T07:16:22Z</time></trkpt><trkpt lat="43.179786029332895" lon="2.0402465783780754"><ele>300.0</ele><time>2026-04-02T07:16:38Z</time></trkpt><trkpt lat="43.17992274273295" lon="2.0401360327188156"><ele>298.4</ele><time>2026-04-02T07:16:50Z</time></trkpt><trkpt lat="43.180009859694195" lon="2.040104826995562"><ele>296.8</ele><time>2026-04-02T07:16:52Z</time></trkpt><trkpt lat="43.18001885387745" lon="2.0402048148181815"><ele>295.2</ele><time>2026-04-02T07:16:54Z</time></trkpt><trkpt lat="43.17999392639591" lon="2.0403136152017614"><ele>293.6</ele><time>2026-04-02T07:16:55Z</time></trkpt><trkpt lat="43.18000161735811" lon="2.0404623450935087"><ele>292.0</ele><time>2026-04-02T07:16:56Z</time></trkpt><trkpt lat="43.1800150062659" lon="2.040616159048929"><ele>292.0</ele><time>2026-04-02T07:16:57Z</time></trkpt><trkpt lat="43.18005473701408" lon="2.0407393604534825"><ele>292.0</ele><time>2026-04-02T07:16:58Z</time></trkpt><trkpt lat="43.18011355673792" lon="2.040844472912754"><ele>292.0</ele><time>2026-04-02T07:16:59Z</time></trkpt><trkpt lat="43.18019618315182" lon="2.0409346982808567"><ele>292.0</ele><time>2026-04-02T07:17:00Z</time></trkpt><trkpt lat="43.1803033412686" lon="2.0410069703535045"><ele>292.0</ele><time>2026-04-02T07:17:01Z</time></trkpt><trkpt lat="43.180434008181905" lon="2.0410650314559815"><ele>288.3333333333333</ele><time>2026-04-02T07:17:02Z</time></trkpt><trkpt lat="43.18058537639136" lon="2.0411212501822416"><ele>284.6666666666667</ele><time>2026-04-02T07:17:03Z</time></trkpt><trkpt lat="43.180759167550086" lon="2.0411840223442903"><ele>281.0</ele><time>2026-04-02T07:17:04Z</time></trkpt><trkpt lat="43.18094415298602" lon="2.041254037802297"><ele>281.0</ele><time>2026-04-02T07:17:05Z</time></trkpt><trkpt lat="43.1811231130016" lon="2.041319644855985"><ele>281.0</ele><time>2026-04-02T07:17:06Z</time></trkpt><trkpt lat="43.181305073484175" lon="2.0413975588474167"><ele>281.0</ele><time>2026-04-02T07:17:07Z</time></trkpt><trkpt lat="43.181480434527074" lon="2.041472102226898"><ele>281.0</ele><time>2026-04-02T07:17:08Z</time></trkpt><trkpt lat="43.18163001980025" lon="2.0415241541678717"><ele>281.0</ele><time>2026-04-02T07:17:09Z</time></trkpt><trkpt lat="43.18176960585591" lon="2.0415513409519708"><ele>281.0</ele><time>2026-04-02T07:17:10Z</time></trkpt><trkpt lat="43.181908235741645" lon="2.041541984386767"><ele>281.0</ele><time>2026-04-02T07:17:11Z</time></trkpt><trkpt lat="43.18204349678733" lon="2.0414938014844117"><ele>281.0</ele><time>2026-04-02T07:17:12Z</time></trkpt><trkpt lat="43.18217088000599" lon="2.041417007566138"><ele>281.0</ele><time>2026-04-02T07:17:13Z</time></trkpt><trkpt lat="43.18229936756502" lon="2.0413512976325365"><ele>281.0</ele><time>2026-04-02T07:17:14Z</time></trkpt><trkpt lat="43.18243423446221" lon="2.0413315507034198"><ele>281.0</ele><time>2026-04-02T07:17:15Z</time></trkpt><trkpt lat="43.18256295078552" lon="2.041369145080674"><ele>280.5</ele><time>2026-04-02T07:17:16Z</time></trkpt><trkpt lat="43.18266104708886" lon="2.041458831627688"><ele>280.0</ele><time>2026-04-02T07:17:17Z</time></trkpt><trkpt lat="43.182747818861536" lon="2.0415882440823916"><ele>279.5</ele><time>2026-04-02T07:17:18Z</time></trkpt><trkpt lat="43.18280880448811" lon="2.041763321049198"><ele>279.0</ele><time>2026-04-02T07:17:19Z</time></trkpt><trkpt lat="43.18285400062063" lon="2.0419721170825693"><ele>276.3333333333333</ele><time>2026-04-02T07:17:20Z</time></trkpt><trkpt lat="43.18288984442717" lon="2.042195408709577"><ele>273.66666666666663</ele><time>2026-04-02T07:17:21Z</time></trkpt><trkpt lat="43.1829515626233" lon="2.042383096792742"><ele>271.0</ele><time>2026-04-02T07:17:22Z</time></trkpt><trkpt lat="43.18305138179249" lon="2.0425245699128283"><ele>269.5</ele><time>2026-04-02T07:17:23Z</time></trkpt><trkpt lat="43.183177159748055" lon="2.042613352606735"><ele>268.0</ele><time>2026-04-02T07:17:24Z</time></trkpt><trkpt lat="43.18332002742053" lon="2.0426521623943117"><ele>266.5</ele><time>2026-04-02T07:17:25Z</time></trkpt><trkpt lat="43.18347029420696" lon="2.042657229809356"><ele>265.0</ele><time>2026-04-02T07:17:26Z</time></trkpt><trkpt lat="43.18361912836492" lon="2.042653700080471"><ele>265.0</ele><time>2026-04-02T07:17:27Z</time></trkpt><trkpt lat="43.18375908707234" lon="2.042686219218144"><ele>265.0</ele><time>2026-04-02T07:17:28Z</time></trkpt><trkpt lat="43.18387938024581" lon="2.042783576431607"><ele>265.0</ele><time>2026-04-02T07:17:29Z</time></trkpt><trkpt lat="43.183960175076294" lon="2.0429463343961465"><ele>265.0</ele><time>2026-04-02T07:17:30Z</time></trkpt><trkpt lat="43.18404892980814" lon="2.043127544262633"><ele>262.3333333333333</ele><time>2026-04-02T07:17:31Z</time></trkpt><trkpt lat="43.18410124702262" lon="2.043341983816539"><ele>259.6666666666667</ele><time>2026-04-02T07:17:32Z</time></trkpt><trkpt lat="43.18412476613495" lon="2.0435628277982194"><ele>257.0</ele><time>2026-04-02T07:17:33Z</time></trkpt><trkpt lat="43.18410889966638" lon="2.043773630200424"><ele>257.0</ele><time>2026-04-02T07:17:34Z</time></trkpt><trkpt lat="43.18403673075359" lon="2.0439828019403303"><ele>257.0</ele><time>2026-04-02T07:17:35Z</time></trkpt><trkpt lat="43.18396887442906" lon="2.044225026201003"><ele>257.0</ele><time>2026-04-02T07:17:36Z</time></trkpt><trkpt lat="43.18388688847215" lon="2.0444558679787583"><ele>254.0</ele><time>2026-04-02T07:17:37Z</time></trkpt><trkpt lat="43.1838446838169" lon="2.0447369132557767"><ele>251.0</ele><time>2026-04-02T07:17:38Z</time></trkpt><trkpt lat="43.183816835301926" lon="2.0450111501079706"><ele>248.0</ele><time>2026-04-02T07:17:39Z</time></trkpt><trkpt lat="43.18379523484504" lon="2.045275161121169"><ele>247.33333333333334</ele><time>2026-04-02T07:17:40Z</time></trkpt><trkpt lat="43.18379252394694" lon="2.0455341517340533"><ele>246.66666666666669</ele><time>2026-04-02T07:17:41Z</time></trkpt><trkpt lat="43.18380567529061" lon="2.0457820527604946"><ele>246.0</ele><time>2026-04-02T07:17:42Z</time></trkpt><trkpt lat="43.18383854200194" lon="2.046021990191616"><ele>245.33333333333331</ele><time>2026-04-02T07:17:43Z</time></trkpt><trkpt lat="43.18390083279091" lon="2.0462543990404796"><ele>244.66666666666666</ele><time>2026-04-02T07:17:44Z</time></trkpt><trkpt lat="43.18399027745772" lon="2.0464789263523113"><ele>244.0</ele><time>2026-04-02T07:17:45Z</time></trkpt><trkpt lat="43.18411083185615" lon="2.0466776366781976"><ele>243.66666666666666</ele><time>2026-04-02T07:17:46Z</time></trkpt><trkpt lat="43.18424040986431" lon="2.046865011720376"><ele>243.33333333333331</ele><time>2026-04-02T07:17:47Z</time></trkpt><trkpt lat="43.18439254204089" lon="2.04703144335584"><ele>243.0</ele><time>2026-04-02T07:17:48Z</time></trkpt><trkpt lat="43.18456003019389" lon="2.047218817424485"><ele>243.0</ele><time>2026-04-02T07:17:49Z</time></trkpt><trkpt lat="43.1847169548883" lon="2.047405749744536"><ele>243.0</ele><time>2026-04-02T07:17:50Z</time></trkpt><trkpt lat="43.18486755038736" lon="2.0475685850471423"><ele>243.0</ele><time>2026-04-02T07:17:51Z</time></trkpt><trkpt lat="43.185023458450765" lon="2.0476964574800083"><ele>241.33333333333331</ele><time>2026-04-02T07:17:52Z</time></trkpt><trkpt lat="43.18518446512044" lon="2.0477844498297073"><ele>239.66666666666666</ele><time>2026-04-02T07:17:53Z</time></trkpt><trkpt lat="43.18535826906211" lon="2.0478189273110528"><ele>238.0</ele><time>2026-04-02T07:17:54Z</time></trkpt><trkpt lat="43.18554273966439" lon="2.0477914025405783"><ele>237.33333333333331</ele><time>2026-04-02T07:17:55Z</time></trkpt><trkpt lat="43.185721163933" lon="2.0477145360106026"><ele>236.66666666666669</ele><time>2026-04-02T07:17:56Z</time></trkpt><trkpt lat="43.18589218096233" lon="2.047617939587671"><ele>236.0</ele><time>2026-04-02T07:17:57Z</time></trkpt><trkpt lat="43.18605769410619" lon="2.047565180118309"><ele>236.0</ele><time>2026-04-02T07:17:58Z</time></trkpt><trkpt lat="43.18622945142721" lon="2.0476086823089203"><ele>236.0</ele><time>2026-04-02T07:17:59Z</time></trkpt><trkpt lat="43.186412996900096" lon="2.047674785564574"><ele>236.0</ele><time>2026-04-02T07:18:00Z</time></trkpt><trkpt lat="43.186603150740275" lon="2.0477496101697987"><ele>235.0</ele><time>2026-04-02T07:18:01Z</time></trkpt><trkpt lat="43.18679840453929" lon="2.0478613418277978"><ele>234.0</ele><time>2026-04-02T07:18:02Z</time></trkpt><trkpt lat="43.18698172170929" lon="2.0480109489542286"><ele>233.0</ele><time>2026-04-02T07:18:03Z</time></trkpt><trkpt lat="43.187162506095994" lon="2.0481789720708585"><ele>231.33333333333334</ele><time>2026-04-02T07:18:04Z</time></trkpt><trkpt lat="43.18734698078852" lon="2.048314371163954"><ele>229.66666666666669</ele><time>2026-04-02T07:18:05Z</time></trkpt><trkpt lat="43.18753784492167" lon="2.0484454324640353"><ele>228.0</ele><time>2026-04-02T07:18:06Z</time></trkpt><trkpt lat="43.18775187114899" lon="2.04852869133101"><ele>228.0</ele><time>2026-04-02T07:18:07Z</time></trkpt><trkpt lat="43.18797079318196" lon="2.0486085589641707"><ele>228.0</ele><time>2026-04-02T07:18:08Z</time></trkpt><trkpt lat="43.18819323863264" lon="2.048683711915735"><ele>228.0</ele><time>2026-04-02T07:18:09Z</time></trkpt><trkpt lat="43.18841556220125" lon="2.048767422338936"><ele>228.0</ele><time>2026-04-02T07:18:10Z</time></trkpt><trkpt lat="43.18863532096308" lon="2.048849661502881"><ele>228.0</ele><time>2026-04-02T07:18:11Z</time></trkpt><trkpt lat="43.188846550987186" lon="2.048939457171627"><ele>228.0</ele><time>2026-04-02T07:18:12Z</time></trkpt><trkpt lat="43.1890542505871" lon="2.0490387497626936"><ele>228.0</ele><time>2026-04-02T07:18:13Z</time></trkpt><trkpt lat="43.189235566931195" lon="2.0491861568634153"><ele>226.33333333333331</ele><time>2026-04-02T07:18:14Z</time></trkpt><trkpt lat="43.18938757516164" lon="2.0493729537228886"><ele>224.66666666666666</ele><time>2026-04-02T07:18:15Z</time></trkpt><trkpt lat="43.18952775485722" lon="2.049595012269143"><ele>223.0</ele><time>2026-04-02T07:18:16Z</time></trkpt><trkpt lat="43.18967575074184" lon="2.0498628431822237"><ele>224.5</ele><time>2026-04-02T07:18:17Z</time></trkpt><trkpt lat="43.18983464950036" lon="2.0501363893348983"><ele>226.0</ele><time>2026-04-02T07:18:18Z</time></trkpt><trkpt lat="43.19000921971422" lon="2.050421524249144"><ele>226.0</ele><time>2026-04-02T07:18:19Z</time></trkpt><trkpt lat="43.19018081082563" lon="2.050726936312765"><ele>226.0</ele><time>2026-04-02T07:18:20Z</time></trkpt><trkpt lat="43.190346903431305" lon="2.051023254875759"><ele>222.5</ele><time>2026-04-02T07:18:21Z</time></trkpt><trkpt lat="43.19051051035136" lon="2.051313896732905"><ele>219.0</ele><time>2026-04-02T07:18:22Z</time></trkpt><trkpt lat="43.19066633736618" lon="2.0515886877844878"><ele>218.5</ele><time>2026-04-02T07:18:23Z</time></trkpt><trkpt lat="43.19082711803762" lon="2.0518606454476847"><ele>218.0</ele><time>2026-04-02T07:18:24Z</time></trkpt><trkpt lat="43.19098287648521" lon="2.052125098031072"><ele>218.0</ele><time>2026-04-02T07:18:25Z</time></trkpt><trkpt lat="43.19113169668739" lon="2.05238462682597"><ele>218.0</ele><time>2026-04-02T07:18:26Z</time></trkpt><trkpt lat="43.19127446592021" lon="2.0526376660096304"><ele>216.0</ele><time>2026-04-02T07:18:27Z</time></trkpt><trkpt lat="43.19141537221119" lon="2.052888223777838"><ele>214.0</ele><time>2026-04-02T07:18:28Z</time></trkpt><trkpt lat="43.191557996738695" lon="2.0531298492768673"><ele>215.33333333333331</ele><time>2026-04-02T07:18:29Z</time></trkpt><trkpt lat="43.191699322285935" lon="2.053366039991294"><ele>216.66666666666669</ele><time>2026-04-02T07:18:30Z</time></trkpt><trkpt lat="43.191837730512574" lon="2.053601157942303"><ele>218.0</ele><time>2026-04-02T07:18:31Z</time></trkpt><trkpt lat="43.1919754093245" lon="2.053834637682605"><ele>218.0</ele><time>2026-04-02T07:18:32Z</time></trkpt><trkpt lat="43.1921116200677" lon="2.054041527612195"><ele>218.0</ele><time>2026-04-02T07:18:33Z</time></trkpt><trkpt lat="43.19226638017576" lon="2.054199631252457"><ele>218.0</ele><time>2026-04-02T07:18:34Z</time></trkpt><trkpt lat="43.19243807991591" lon="2.0543036423778633"><ele>217.33333333333334</ele><time>2026-04-02T07:18:35Z</time></trkpt><trkpt lat="43.19260591640067" lon="2.054385294187094"><ele>216.66666666666669</ele><time>2026-04-02T07:18:36Z</time></trkpt><trkpt lat="43.19275616470825" lon="2.054472995343331"><ele>216.0</ele><time>2026-04-02T07:18:37Z</time></trkpt><trkpt lat="43.192886236009045" lon="2.0545556167278742"><ele>216.0</ele><time>2026-04-02T07:18:38Z</time></trkpt><trkpt lat="43.19299130481929" lon="2.0546217126308104"><ele>216.00000000000003</ele><time>2026-04-02T07:18:39Z</time></trkpt><trkpt lat="43.193061444459914" lon="2.054675339292425"><ele>216.00000000000003</ele><time>2026-04-02T07:18:40Z</time></trkpt><trkpt lat="43.19314236424462" lon="2.0547619110972795"><ele>216.0</ele><time>2026-04-02T07:18:42Z</time></trkpt><trkpt lat="43.193203313101385" lon="2.05488279957972"><ele>216.0</ele><time>2026-04-02T07:18:46Z</time></trkpt><trkpt lat="43.19320857434522" lon="2.0550077741388715"><ele>214.60000000000002</ele><time>2026-04-02T07:18:47Z</time></trkpt><trkpt lat="43.19323919220991" lon="2.055137210512838"><ele>213.20000000000002</ele><time>2026-04-02T07:18:48Z</time></trkpt><trkpt lat="43.19327481158604" lon="2.0552492964386797"><ele>211.8</ele><time>2026-04-02T07:18:49Z</time></trkpt><trkpt lat="43.19333162519756" lon="2.0553293985443215"><ele>210.39999999999998</ele><time>2026-04-02T07:18:50Z</time></trkpt><trkpt lat="43.19340780540379" lon="2.055391585465915"><ele>209.0</ele><time>2026-04-02T07:18:51Z</time></trkpt><trkpt lat="43.19350250946564" lon="2.0554278320169876"><ele>209.00000000000003</ele><time>2026-04-02T07:18:52Z</time></trkpt><trkpt lat="43.193607290593256" lon="2.0554213103224392"><ele>209.0</ele><time>2026-04-02T07:18:53Z</time></trkpt><trkpt lat="43.19370094021051" lon="2.0553804830078017"><ele>209.0</ele><time>2026-04-02T07:18:54Z</time></trkpt><trkpt lat="43.19377761175047" lon="2.0553308837299027"><ele>209.0</ele><time>2026-04-02T07:18:55Z</time></trkpt><trkpt lat="43.19384111169378" lon="2.0552831480870393"><ele>209.00000000000003</ele><time>2026-04-02T07:18:56Z</time></trkpt><trkpt lat="43.193919809126605" lon="2.055244315317926"><ele>209.0</ele><time>2026-04-02T07:18:57Z</time></trkpt><trkpt lat="43.19402374015316" lon="2.0552380896241704"><ele>208.66666666666669</ele><time>2026-04-02T07:18:58Z</time></trkpt><trkpt lat="43.19415244235392" lon="2.055278855724695"><ele>208.33333333333331</ele><time>2026-04-02T07:18:59Z</time></trkpt><trkpt lat="43.1942977034067" lon="2.0554035127647614"><ele>208.0</ele><time>2026-04-02T07:19:00Z</time></trkpt><trkpt lat="43.19448530992876" lon="2.0555262623229575"><ele>208.0</ele><time>2026-04-02T07:19:01Z</time></trkpt><trkpt lat="43.19469525375453" lon="2.055658861428222"><ele>208.0</ele><time>2026-04-02T07:19:02Z</time></trkpt><trkpt lat="43.194916698730516" lon="2.0557942233917257"><ele>206.0</ele><time>2026-04-02T07:19:03Z</time></trkpt><trkpt lat="43.1951547616544" lon="2.0559367225376715"><ele>204.0</ele><time>2026-04-02T07:19:04Z</time></trkpt><trkpt lat="43.19540897386884" lon="2.0560833584701017"><ele>204.0</ele><time>2026-04-02T07:19:05Z</time></trkpt><trkpt lat="43.19567021292909" lon="2.0562580406487463"><ele>204.0</ele><time>2026-04-02T07:19:06Z</time></trkpt><trkpt lat="43.19594715561629" lon="2.0564190412986547"><ele>202.5</ele><time>2026-04-02T07:19:07Z</time></trkpt><trkpt lat="43.196228956210454" lon="2.056573952844235"><ele>201.0</ele><time>2026-04-02T07:19:08Z</time></trkpt><trkpt lat="43.19651338032734" lon="2.056733110752718"><ele>199.5</ele><time>2026-04-02T07:19:09Z</time></trkpt><trkpt lat="43.1967820389171" lon="2.0568936410653658"><ele>198.0</ele><time>2026-04-02T07:19:10Z</time></trkpt><trkpt lat="43.19704987383145" lon="2.057053305030892"><ele>198.0</ele><time>2026-04-02T07:19:11Z</time></trkpt><trkpt lat="43.1973217998642" lon="2.057209379553955"><ele>198.0</ele><time>2026-04-02T07:19:12Z</time></trkpt><trkpt lat="43.19757564033883" lon="2.0573565004511547"><ele>195.5</ele><time>2026-04-02T07:19:13Z</time></trkpt><trkpt lat="43.19779445328326" lon="2.057485033516383"><ele>193.0</ele><time>2026-04-02T07:19:14Z</time></trkpt><trkpt lat="43.19800138640154" lon="2.0576034385347777"><ele>192.33333333333331</ele><time>2026-04-02T07:19:15Z</time></trkpt><trkpt lat="43.198197881799615" lon="2.0577372876528957"><ele>191.66666666666666</ele><time>2026-04-02T07:19:16Z</time></trkpt><trkpt lat="43.198404218841816" lon="2.0578576949056475"><ele>191.0</ele><time>2026-04-02T07:19:17Z</time></trkpt><trkpt lat="43.19861492485077" lon="2.057980109237411"><ele>191.0</ele><time>2026-04-02T07:19:18Z</time></trkpt><trkpt lat="43.198829612448385" lon="2.058105920145945"><ele>191.0</ele><time>2026-04-02T07:19:19Z</time></trkpt><trkpt lat="43.199058756249215" lon="2.0582405772075365"><ele>189.5</ele><time>2026-04-02T07:19:20Z</time></trkpt><trkpt lat="43.19930079721456" lon="2.058383829479098"><ele>188.0</ele><time>2026-04-02T07:19:21Z</time></trkpt><trkpt lat="43.19954956914275" lon="2.058532180807498"><ele>188.0</ele><time>2026-04-02T07:19:22Z</time></trkpt><trkpt lat="43.19980017707831" lon="2.0586826325115704"><ele>188.0</ele><time>2026-04-02T07:19:23Z</time></trkpt><trkpt lat="43.20005964672962" lon="2.058810907948543"><ele>187.5</ele><time>2026-04-02T07:19:24Z</time></trkpt><trkpt lat="43.20030526048051" lon="2.0589673543053544"><ele>187.0</ele><time>2026-04-02T07:19:25Z</time></trkpt><trkpt lat="43.20055490926996" lon="2.059123752366667"><ele>187.0</ele><time>2026-04-02T07:19:26Z</time></trkpt><trkpt lat="43.20080191655727" lon="2.059272539455817"><ele>187.0</ele><time>2026-04-02T07:19:27Z</time></trkpt><trkpt lat="43.20104603863295" lon="2.059418229944453"><ele>187.0</ele><time>2026-04-02T07:19:28Z</time></trkpt><trkpt lat="43.20129032744139" lon="2.0595637333230603"><ele>187.0</ele><time>2026-04-02T07:19:29Z</time></trkpt><trkpt lat="43.20153547284948" lon="2.059713467584764"><ele>186.0</ele><time>2026-04-02T07:19:30Z</time></trkpt><trkpt lat="43.201780412089114" lon="2.0598558279316843"><ele>185.0</ele><time>2026-04-02T07:19:31Z</time></trkpt><trkpt lat="43.20202737663841" lon="2.0599969807179033"><ele>185.0</ele><time>2026-04-02T07:19:32Z</time></trkpt><trkpt lat="43.202268685840856" lon="2.0601424485953626"><ele>185.0</ele><time>2026-04-02T07:19:33Z</time></trkpt><trkpt lat="43.20250984275981" lon="2.0602942891547475"><ele>184.0</ele><time>2026-04-02T07:19:34Z</time></trkpt><trkpt lat="43.202755720026666" lon="2.060456915609941"><ele>183.0</ele><time>2026-04-02T07:19:35Z</time></trkpt><trkpt lat="43.2030004553357" lon="2.0606408339015387"><ele>183.0</ele><time>2026-04-02T07:19:36Z</time></trkpt><trkpt lat="43.20324201011375" lon="2.0608549792548176"><ele>183.0</ele><time>2026-04-02T07:19:37Z</time></trkpt><trkpt lat="43.203478103539396" lon="2.0610985947318636"><ele>183.0</ele><time>2026-04-02T07:19:38Z</time></trkpt><trkpt lat="43.203704641816195" lon="2.061356397990594"><ele>183.0</ele><time>2026-04-02T07:19:39Z</time></trkpt><trkpt lat="43.203932223283545" lon="2.0616092777102417"><ele>182.0</ele><time>2026-04-02T07:19:40Z</time></trkpt><trkpt lat="43.20416754538843" lon="2.061857309768435"><ele>181.0</ele><time>2026-04-02T07:19:41Z</time></trkpt><trkpt lat="43.204399081154214" lon="2.0621129767449466"><ele>181.0</ele><time>2026-04-02T07:19:42Z</time></trkpt><trkpt lat="43.20463501797568" lon="2.0623664502532533"><ele>181.0</ele><time>2026-04-02T07:19:43Z</time></trkpt><trkpt lat="43.204872475996055" lon="2.0626162893936444"><ele>181.0</ele><time>2026-04-02T07:19:44Z</time></trkpt><trkpt lat="43.20510862023492" lon="2.0628668329518116"><ele>181.0</ele><time>2026-04-02T07:19:45Z</time></trkpt><trkpt lat="43.20534742993459" lon="2.0631167953333573"><ele>180.5</ele><time>2026-04-02T07:19:46Z</time></trkpt><trkpt lat="43.20558593415718" lon="2.063371314271964"><ele>180.0</ele><time>2026-04-02T07:19:47Z</time></trkpt><trkpt lat="43.20582230580066" lon="2.063625982169377"><ele>179.5</ele><time>2026-04-02T07:19:48Z</time></trkpt><trkpt lat="43.20605550950012" lon="2.063878084425236"><ele>179.0</ele><time>2026-04-02T07:19:49Z</time></trkpt><trkpt lat="43.206286861882575" lon="2.064127670328802"><ele>178.5</ele><time>2026-04-02T07:19:50Z</time></trkpt><trkpt lat="43.206519883427305" lon="2.0643748770604584"><ele>178.0</ele><time>2026-04-02T07:19:51Z</time></trkpt><trkpt lat="43.206751647725696" lon="2.0646238760498727"><ele>178.0</ele><time>2026-04-02T07:19:52Z</time></trkpt><trkpt lat="43.206984906349504" lon="2.064869298868613"><ele>178.0</ele><time>2026-04-02T07:19:53Z</time></trkpt><trkpt lat="43.207213665049686" lon="2.06511119129342"><ele>177.5</ele><time>2026-04-02T07:19:54Z</time></trkpt><trkpt lat="43.20743541578031" lon="2.065353147557324"><ele>177.0</ele><time>2026-04-02T07:19:55Z</time></trkpt><trkpt lat="43.207654020327745" lon="2.0655895742072543"><ele>176.0</ele><time>2026-04-02T07:19:56Z</time></trkpt><trkpt lat="43.20787205850747" lon="2.0658227794671506"><ele>175.0</ele><time>2026-04-02T07:19:57Z</time></trkpt><trkpt lat="43.20808703876353" lon="2.0660517337811757"><ele>175.0</ele><time>2026-04-02T07:19:58Z</time></trkpt><trkpt lat="43.208298881092965" lon="2.0662807652042043"><ele>175.0</ele><time>2026-04-02T07:19:59Z</time></trkpt><trkpt lat="43.20851771109857" lon="2.06651383133402"><ele>174.0</ele><time>2026-04-02T07:20:00Z</time></trkpt><trkpt lat="43.208751978072435" lon="2.0667491984867152"><ele>173.0</ele><time>2026-04-02T07:20:01Z</time></trkpt><trkpt lat="43.20899455744093" lon="2.066978582179577"><ele>173.0</ele><time>2026-04-02T07:20:02Z</time></trkpt><trkpt lat="43.209224947424026" lon="2.067227128421818"><ele>173.0</ele><time>2026-04-02T07:20:03Z</time></trkpt><trkpt lat="43.20944337315433" lon="2.0674900151254128"><ele>173.0</ele><time>2026-04-02T07:20:04Z</time></trkpt><trkpt lat="43.209666979911525" lon="2.067747361590849"><ele>173.0</ele><time>2026-04-02T07:20:05Z</time></trkpt><trkpt lat="43.20989911105115" lon="2.067983202859123"><ele>173.5</ele><time>2026-04-02T07:20:06Z</time></trkpt><trkpt lat="43.210123670206144" lon="2.0682107485364494"><ele>174.0</ele><time>2026-04-02T07:20:07Z</time></trkpt><trkpt lat="43.21033196811495" lon="2.068421367505572"><ele>175.0</ele><time>2026-04-02T07:20:08Z</time></trkpt><trkpt lat="43.21052923292213" lon="2.068622909131809"><ele>176.0</ele><time>2026-04-02T07:20:09Z</time></trkpt><trkpt lat="43.21072524489662" lon="2.068844777786464"><ele>174.0</ele><time>2026-04-02T07:20:10Z</time></trkpt><trkpt lat="43.210917044707934" lon="2.0691060060999784"><ele>172.0</ele><time>2026-04-02T07:20:11Z</time></trkpt><trkpt lat="43.21110565824807" lon="2.0693998238607554"><ele>171.0</ele><time>2026-04-02T07:20:12Z</time></trkpt><trkpt lat="43.21130407977002" lon="2.069692055347412"><ele>170.0</ele><time>2026-04-02T07:20:13Z</time></trkpt><trkpt lat="43.211505918843805" lon="2.069980031650052"><ele>169.0</ele><time>2026-04-02T07:20:14Z</time></trkpt><trkpt lat="43.21170760697936" lon="2.070264910296051"><ele>168.0</ele><time>2026-04-02T07:20:15Z</time></trkpt><trkpt lat="43.211907177246346" lon="2.0705482683727823"><ele>167.5</ele><time>2026-04-02T07:20:16Z</time></trkpt><trkpt lat="43.21209993581905" lon="2.070837535414494"><ele>167.0</ele><time>2026-04-02T07:20:17Z</time></trkpt><trkpt lat="43.2122986483194" lon="2.071124216760134"><ele>166.5</ele><time>2026-04-02T07:20:18Z</time></trkpt><trkpt lat="43.212492557215114" lon="2.0714017235293936"><ele>166.0</ele><time>2026-04-02T07:20:19Z</time></trkpt><trkpt lat="43.21267276301755" lon="2.071664505551784"><ele>165.33333333333334</ele><time>2026-04-02T07:20:20Z</time></trkpt><trkpt lat="43.21282400303677" lon="2.071893471575351"><ele>164.66666666666666</ele><time>2026-04-02T07:20:21Z</time></trkpt><trkpt lat="43.212961800924354" lon="2.0721016460084623"><ele>164.0</ele><time>2026-04-02T07:20:22Z</time></trkpt><trkpt lat="43.21309193012862" lon="2.07229641965783"><ele>163.66666666666666</ele><time>2026-04-02T07:20:23Z</time></trkpt><trkpt lat="43.21321492861011" lon="2.072476103631576"><ele>163.33333333333334</ele><time>2026-04-02T07:20:24Z</time></trkpt><trkpt lat="43.21333169317255" lon="2.07263316432738"><ele>163.0</ele><time>2026-04-02T07:20:25Z</time></trkpt><trkpt lat="43.21343246743584" lon="2.0727646576188024"><ele>163.0</ele><time>2026-04-02T07:20:26Z</time></trkpt><trkpt lat="43.21351914804337" lon="2.072886283305939"><ele>163.0</ele><time>2026-04-02T07:20:27Z</time></trkpt><trkpt lat="43.213586861584076" lon="2.072986411589539"><ele>163.0</ele><time>2026-04-02T07:20:28Z</time></trkpt><trkpt lat="43.21364077939686" lon="2.0730694277055153"><ele>163.0</ele><time>2026-04-02T07:20:29Z</time></trkpt><trkpt lat="43.21368532108616" lon="2.0731338991681127"><ele>163.0</ele><time>2026-04-02T07:20:30Z</time></trkpt><trkpt lat="43.21375578174849" lon="2.0732285700047237"><ele>163.0</ele><time>2026-04-02T07:20:32Z</time></trkpt><trkpt lat="43.21380486868594" lon="2.073302023246889"><ele>163.0</ele><time>2026-04-02T07:20:36Z</time></trkpt><trkpt lat="43.2138512133678" lon="2.073372120410799"><ele>163.0</ele><time>2026-04-02T07:20:41Z</time></trkpt><trkpt lat="43.21392047326615" lon="2.0734987349732097"><ele>163.0</ele><time>2026-04-02T07:20:44Z</time></trkpt><trkpt lat="43.21398907789072" lon="2.0735783452189653"><ele>163.0</ele><time>2026-04-02T07:20:45Z</time></trkpt><trkpt lat="43.21407168653953" lon="2.073687324082158"><ele>163.0</ele><time>2026-04-02T07:20:46Z</time></trkpt><trkpt lat="43.21417697542181" lon="2.0738447242669333"><ele>163.0</ele><time>2026-04-02T07:20:47Z</time></trkpt><trkpt lat="43.21430330296054" lon="2.0740439215784945"><ele>163.0</ele><time>2026-04-02T07:20:48Z</time></trkpt><trkpt lat="43.21445274907224" lon="2.074249809025194"><ele>163.0</ele><time>2026-04-02T07:20:49Z</time></trkpt><trkpt lat="43.214614639013114" lon="2.074476789768682"><ele>163.0</ele><time>2026-04-02T07:20:50Z</time></trkpt><trkpt lat="43.214774607864236" lon="2.0747175788961427"><ele>163.0</ele><time>2026-04-02T07:20:51Z</time></trkpt><trkpt lat="43.214955582396684" lon="2.074988051302722"><ele>163.0</ele><time>2026-04-02T07:20:52Z</time></trkpt><trkpt lat="43.21514269723991" lon="2.0752611504717344"><ele>163.0</ele><time>2026-04-02T07:20:53Z</time></trkpt><trkpt lat="43.215333674134364" lon="2.075534449505993"><ele>163.0</ele><time>2026-04-02T07:20:54Z</time></trkpt><trkpt lat="43.215529605465534" lon="2.075815978702024"><ele>162.0</ele><time>2026-04-02T07:20:55Z</time></trkpt><trkpt lat="43.215731538955126" lon="2.0761039244675072"><ele>161.0</ele><time>2026-04-02T07:20:56Z</time></trkpt><trkpt lat="43.21594233088994" lon="2.076403292194291"><ele>161.0</ele><time>2026-04-02T07:20:57Z</time></trkpt><trkpt lat="43.2161554608315" lon="2.0767038884193134"><ele>161.0</ele><time>2026-04-02T07:20:58Z</time></trkpt><trkpt lat="43.216373254221146" lon="2.0770137551917225"><ele>160.5</ele><time>2026-04-02T07:20:59Z</time></trkpt><trkpt lat="43.21659601810762" lon="2.0773403413114693"><ele>160.0</ele><time>2026-04-02T07:21:00Z</time></trkpt><trkpt lat="43.21682423428111" lon="2.0776710732484935"><ele>159.5</ele><time>2026-04-02T07:21:01Z</time></trkpt><trkpt lat="43.21705660213314" lon="2.078001697140139"><ele>159.0</ele><time>2026-04-02T07:21:02Z</time></trkpt><trkpt lat="43.217284226229104" lon="2.0783308003176484"><ele>158.0</ele><time>2026-04-02T07:21:03Z</time></trkpt><trkpt lat="43.21751136985067" lon="2.078657626311084"><ele>157.0</ele><time>2026-04-02T07:21:04Z</time></trkpt><trkpt lat="43.217737206827145" lon="2.078993071128125"><ele>157.0</ele><time>2026-04-02T07:21:05Z</time></trkpt><trkpt lat="43.21796141108393" lon="2.0793200477688076"><ele>157.0</ele><time>2026-04-02T07:21:06Z</time></trkpt><trkpt lat="43.21817700872767" lon="2.0796233208173134"><ele>156.0</ele><time>2026-04-02T07:21:07Z</time></trkpt><trkpt lat="43.218383700853494" lon="2.079924374189417"><ele>155.0</ele><time>2026-04-02T07:21:08Z</time></trkpt><trkpt lat="43.21858667638173" lon="2.080214586139689"><ele>158.5</ele><time>2026-04-02T07:21:09Z</time></trkpt><trkpt lat="43.218784982872286" lon="2.0805032591374757"><ele>162.0</ele><time>2026-04-02T07:21:10Z</time></trkpt><trkpt lat="43.21898600262551" lon="2.0807899102408642"><ele>163.0</ele><time>2026-04-02T07:21:11Z</time></trkpt><trkpt lat="43.21918440269878" lon="2.0810752921110978"><ele>164.0</ele><time>2026-04-02T07:21:12Z</time></trkpt><trkpt lat="43.219379439179235" lon="2.081363656227592"><ele>165.0</ele><time>2026-04-02T07:21:13Z</time></trkpt><trkpt lat="43.21957803574863" lon="2.081656580416975"><ele>166.0</ele><time>2026-04-02T07:21:14Z</time></trkpt><trkpt lat="43.21978081537428" lon="2.081948576977591"><ele>164.0</ele><time>2026-04-02T07:21:15Z</time></trkpt><trkpt lat="43.21998949169343" lon="2.082247693880726"><ele>162.0</ele><time>2026-04-02T07:21:16Z</time></trkpt><trkpt lat="43.220206552028934" lon="2.0825628837482513"><ele>162.0</ele><time>2026-04-02T07:21:17Z</time></trkpt><trkpt lat="43.22042486387581" lon="2.0828818292597764"><ele>162.0</ele><time>2026-04-02T07:21:18Z</time></trkpt><trkpt lat="43.22064097272467" lon="2.083200740473882"><ele>161.5</ele><time>2026-04-02T07:21:19Z</time></trkpt><trkpt lat="43.22085298047354" lon="2.0835154861893255"><ele>161.0</ele><time>2026-04-02T07:21:20Z</time></trkpt><trkpt lat="43.221066392240395" lon="2.0838234382774874"><ele>161.0</ele><time>2026-04-02T07:21:21Z</time></trkpt><trkpt lat="43.221277750271156" lon="2.0841285527492457"><ele>161.0</ele><time>2026-04-02T07:21:22Z</time></trkpt><trkpt lat="43.2214872888894" lon="2.0844266213920015"><ele>160.0</ele><time>2026-04-02T07:21:23Z</time></trkpt><trkpt lat="43.221694284469784" lon="2.0847263570192345"><ele>159.0</ele><time>2026-04-02T07:21:24Z</time></trkpt><trkpt lat="43.22189764065697" lon="2.0850232035882548"><ele>158.5</ele><time>2026-04-02T07:21:25Z</time></trkpt><trkpt lat="43.22209595412362" lon="2.0853165661949635"><ele>158.0</ele><time>2026-04-02T07:21:26Z</time></trkpt><trkpt lat="43.22229713478331" lon="2.0856068078271988"><ele>156.5</ele><time>2026-04-02T07:21:27Z</time></trkpt><trkpt lat="43.222498366983764" lon="2.0858935868300006"><ele>155.0</ele><time>2026-04-02T07:21:28Z</time></trkpt><trkpt lat="43.2226981455937" lon="2.0861780320519396"><ele>155.0</ele><time>2026-04-02T07:21:29Z</time></trkpt><trkpt lat="43.22289618852668" lon="2.0864566888732634"><ele>155.0</ele><time>2026-04-02T07:21:30Z</time></trkpt><trkpt lat="43.22309100875987" lon="2.086739520807635"><ele>155.0</ele><time>2026-04-02T07:21:31Z</time></trkpt><trkpt lat="43.22328498368516" lon="2.0870236284803108"><ele>155.0</ele><time>2026-04-02T07:21:32Z</time></trkpt><trkpt lat="43.22348105978293" lon="2.087307538865831"><ele>155.5</ele><time>2026-04-02T07:21:33Z</time></trkpt><trkpt lat="43.22367690044949" lon="2.087583391992273"><ele>156.0</ele><time>2026-04-02T07:21:34Z</time></trkpt><trkpt lat="43.22387548808629" lon="2.08786606271061"><ele>156.0</ele><time>2026-04-02T07:21:35Z</time></trkpt><trkpt lat="43.22407686503094" lon="2.0881574073345295"><ele>156.0</ele><time>2026-04-02T07:21:36Z</time></trkpt><trkpt lat="43.22427693797727" lon="2.0884526537387647"><ele>156.0</ele><time>2026-04-02T07:21:37Z</time></trkpt><trkpt lat="43.224477390527724" lon="2.0887481312825806"><ele>156.0</ele><time>2026-04-02T07:21:38Z</time></trkpt><trkpt lat="43.224679678423364" lon="2.089040247591789"><ele>155.5</ele><time>2026-04-02T07:21:39Z</time></trkpt><trkpt lat="43.22488448806763" lon="2.0893353019836476"><ele>155.0</ele><time>2026-04-02T07:21:40Z</time></trkpt><trkpt lat="43.225099825138365" lon="2.089642279486969"><ele>155.5</ele><time>2026-04-02T07:21:41Z</time></trkpt><trkpt lat="43.22531828555486" lon="2.089957031737239"><ele>156.0</ele><time>2026-04-02T07:21:42Z</time></trkpt><trkpt lat="43.22553299742455" lon="2.090264671565088"><ele>155.5</ele><time>2026-04-02T07:21:43Z</time></trkpt><trkpt lat="43.22573416755327" lon="2.090560267894288"><ele>155.0</ele><time>2026-04-02T07:21:44Z</time></trkpt><trkpt lat="43.22591949990976" lon="2.0908380562963416"><ele>157.5</ele><time>2026-04-02T07:21:45Z</time></trkpt><trkpt lat="43.22611113252916" lon="2.0911012127876223"><ele>160.0</ele><time>2026-04-02T07:21:46Z</time></trkpt><trkpt lat="43.22632284271622" lon="2.091359970976334"><ele>161.0</ele><time>2026-04-02T07:21:47Z</time></trkpt><trkpt lat="43.22654657224697" lon="2.091604308016812"><ele>162.0</ele><time>2026-04-02T07:21:48Z</time></trkpt><trkpt lat="43.22676477090205" lon="2.0918294942324334"><ele>162.0</ele><time>2026-04-02T07:21:49Z</time></trkpt><trkpt lat="43.2269729424289" lon="2.0920300096110513"><ele>162.0</ele><time>2026-04-02T07:21:50Z</time></trkpt><trkpt lat="43.22718916521037" lon="2.0922219526007106"><ele>162.5</ele><time>2026-04-02T07:21:51Z</time></trkpt><trkpt lat="43.22741484934322" lon="2.0924070022611594"><ele>163.0</ele><time>2026-04-02T07:21:52Z</time></trkpt><trkpt lat="43.22761805150262" lon="2.0925703195028746"><ele>163.0</ele><time>2026-04-02T07:21:53Z</time></trkpt><trkpt lat="43.227794878512846" lon="2.0927153940753214"><ele>163.0</ele><time>2026-04-02T07:21:54Z</time></trkpt><trkpt lat="43.227953581765256" lon="2.09284923547211"><ele>163.0</ele><time>2026-04-02T07:21:55Z</time></trkpt><trkpt lat="43.22810480404246" lon="2.0929691280855423"><ele>162.66666666666669</ele><time>2026-04-02T07:21:56Z</time></trkpt><trkpt lat="43.22824889378388" lon="2.0930766750088923"><ele>162.33333333333334</ele><time>2026-04-02T07:21:57Z</time></trkpt><trkpt lat="43.228383821645664" lon="2.0931767898489264"><ele>162.0</ele><time>2026-04-02T07:21:58Z</time></trkpt><trkpt lat="43.22849650585114" lon="2.0932766331951083"><ele>163.0</ele><time>2026-04-02T07:21:59Z</time></trkpt><trkpt lat="43.22858136459981" lon="2.0933610497273123"><ele>164.0</ele><time>2026-04-02T07:22:00Z</time></trkpt><trkpt lat="43.228645946973" lon="2.0934266974259734"><ele>165.0</ele><time>2026-04-02T07:22:01Z</time></trkpt><trkpt lat="43.22870963576108" lon="2.09350275346843"><ele>166.0</ele><time>2026-04-02T07:22:03Z</time></trkpt><trkpt lat="43.2287711832476" lon="2.0935733639840843"><ele>167.0</ele><time>2026-04-02T07:22:06Z</time></trkpt><trkpt lat="43.228866006449245" lon="2.0937028967022524"><ele>167.0</ele><time>2026-04-02T07:22:16Z</time></trkpt><trkpt lat="43.22897417303354" lon="2.0938522083966604"><ele>167.0</ele><time>2026-04-02T07:22:18Z</time></trkpt><trkpt lat="43.229019597267346" lon="2.0939493502461812"><ele>167.0</ele><time>2026-04-02T07:22:19Z</time></trkpt><trkpt lat="43.22916892318086" lon="2.094195508686348"><ele>165.33333333333331</ele><time>2026-04-02T07:22:20Z</time></trkpt><trkpt lat="43.229284259684" lon="2.094374322543402"><ele>163.66666666666666</ele><time>2026-04-02T07:22:21Z</time></trkpt><trkpt lat="43.229395302120885" lon="2.0945513447144988"><ele>162.0</ele><time>2026-04-02T07:22:22Z</time></trkpt><trkpt lat="43.22951723647253" lon="2.0947330408960774"><ele>162.0</ele><time>2026-04-02T07:22:23Z</time></trkpt><trkpt lat="43.22963985594234" lon="2.094908901277548"><ele>162.0</ele><time>2026-04-02T07:22:24Z</time></trkpt><trkpt lat="43.22976934384266" lon="2.095077732732785"><ele>162.0</ele><time>2026-04-02T07:22:25Z</time></trkpt><trkpt lat="43.22988955646481" lon="2.0952531947025768"><ele>161.33333333333334</ele><time>2026-04-02T07:22:26Z</time></trkpt><trkpt lat="43.23001575499483" lon="2.0954208883432575"><ele>160.66666666666669</ele><time>2026-04-02T07:22:27Z</time></trkpt><trkpt lat="43.230150995110115" lon="2.0955902595296556"><ele>160.0</ele><time>2026-04-02T07:22:28Z</time></trkpt><trkpt lat="43.230284889217735" lon="2.095761736430618"><ele>159.66666666666669</ele><time>2026-04-02T07:22:29Z</time></trkpt><trkpt lat="43.23042142189341" lon="2.0959288445131343"><ele>159.33333333333334</ele><time>2026-04-02T07:22:30Z</time></trkpt><trkpt lat="43.23056094271579" lon="2.0960935285675135"><ele>159.0</ele><time>2026-04-02T07:22:31Z</time></trkpt><trkpt lat="43.23069878213843" lon="2.096265337873779"><ele>159.0</ele><time>2026-04-02T07:22:32Z</time></trkpt><trkpt lat="43.23083560849035" lon="2.0964399060183956"><ele>159.0</ele><time>2026-04-02T07:22:33Z</time></trkpt><trkpt lat="43.230976254044144" lon="2.0966092316408935"><ele>159.0</ele><time>2026-04-02T07:22:34Z</time></trkpt><trkpt lat="43.2311169476562" lon="2.0967528356118694"><ele>159.0</ele><time>2026-04-02T07:22:35Z</time></trkpt><trkpt lat="43.23127974110665" lon="2.0968943467384764"><ele>159.0</ele><time>2026-04-02T07:22:36Z</time></trkpt><trkpt lat="43.23145104667988" lon="2.097009598710532"><ele>159.0</ele><time>2026-04-02T07:22:37Z</time></trkpt><trkpt lat="43.23162507410314" lon="2.0971035129103663"><ele>157.66666666666666</ele><time>2026-04-02T07:22:38Z</time></trkpt><trkpt lat="43.23179918691438" lon="2.097209631839534"><ele>156.33333333333331</ele><time>2026-04-02T07:22:39Z</time></trkpt><trkpt lat="43.23195100783187" lon="2.0973322857548182"><ele>155.0</ele><time>2026-04-02T07:22:40Z</time></trkpt><trkpt lat="43.23208507449995" lon="2.0974830934846214"><ele>154.0</ele><time>2026-04-02T07:22:41Z</time></trkpt><trkpt lat="43.23220239930412" lon="2.0976405409742314"><ele>153.0</ele><time>2026-04-02T07:22:42Z</time></trkpt><trkpt lat="43.23232339318662" lon="2.097783888690602"><ele>152.0</ele><time>2026-04-02T07:22:43Z</time></trkpt><trkpt lat="43.232433466772314" lon="2.0979333257395276"><ele>150.33333333333331</ele><time>2026-04-02T07:22:44Z</time></trkpt><trkpt lat="43.232552721080474" lon="2.0980687508405973"><ele>148.66666666666666</ele><time>2026-04-02T07:22:45Z</time></trkpt><trkpt lat="43.23267364956107" lon="2.098206108178575"><ele>147.0</ele><time>2026-04-02T07:22:46Z</time></trkpt><trkpt lat="43.23281635889906" lon="2.0983665517900283"><ele>145.33333333333334</ele><time>2026-04-02T07:22:47Z</time></trkpt><trkpt lat="43.23297354487717" lon="2.098537936107481"><ele>143.66666666666669</ele><time>2026-04-02T07:22:48Z</time></trkpt><trkpt lat="43.23314405454602" lon="2.098694997898585"><ele>142.0</ele><time>2026-04-02T07:22:49Z</time></trkpt><trkpt lat="43.23329867545858" lon="2.0988755941611514"><ele>141.66666666666669</ele><time>2026-04-02T07:22:50Z</time></trkpt><trkpt lat="43.23345517911993" lon="2.0990407067948045"><ele>141.33333333333334</ele><time>2026-04-02T07:22:51Z</time></trkpt><trkpt lat="43.2336191818126" lon="2.0991877336140123"><ele>141.0</ele><time>2026-04-02T07:22:52Z</time></trkpt><trkpt lat="43.23378654571511" lon="2.099330675865631"><ele>140.66666666666666</ele><time>2026-04-02T07:22:53Z</time></trkpt><trkpt lat="43.233942817172895" lon="2.099485826512345"><ele>140.33333333333331</ele><time>2026-04-02T07:22:54Z</time></trkpt><trkpt lat="43.23409016394568" lon="2.09965652832958"><ele>140.0</ele><time>2026-04-02T07:22:55Z</time></trkpt><trkpt lat="43.23422481764425" lon="2.0998336182455835"><ele>140.0</ele><time>2026-04-02T07:22:56Z</time></trkpt><trkpt lat="43.23435262013544" lon="2.1000062645551094"><ele>140.0</ele><time>2026-04-02T07:22:57Z</time></trkpt><trkpt lat="43.23446856459288" lon="2.1001735151502334"><ele>140.0</ele><time>2026-04-02T07:22:58Z</time></trkpt><trkpt lat="43.23457305228281" lon="2.100330245691431"><ele>140.0</ele><time>2026-04-02T07:22:59Z</time></trkpt><trkpt lat="43.2346779495383" lon="2.1004856017151052"><ele>140.0</ele><time>2026-04-02T07:23:00Z</time></trkpt><trkpt lat="43.234796251465085" lon="2.1006520536475035"><ele>140.0</ele><time>2026-04-02T07:23:01Z</time></trkpt><trkpt lat="43.23491674184994" lon="2.100816908714793"><ele>140.66666666666666</ele><time>2026-04-02T07:23:02Z</time></trkpt><trkpt lat="43.23503900435724" lon="2.100980435103539"><ele>141.33333333333334</ele><time>2026-04-02T07:23:03Z</time></trkpt><trkpt lat="43.235160785401945" lon="2.1011464975013743"><ele>142.0</ele><time>2026-04-02T07:23:04Z</time></trkpt><trkpt lat="43.23528309127903" lon="2.1013199167263608"><ele>142.0</ele><time>2026-04-02T07:23:05Z</time></trkpt><trkpt lat="43.235406863230914" lon="2.10149751867444"><ele>142.0</ele><time>2026-04-02T07:23:06Z</time></trkpt><trkpt lat="43.23553544460292" lon="2.1016758993314832"><ele>142.0</ele><time>2026-04-02T07:23:07Z</time></trkpt><trkpt lat="43.235662314397985" lon="2.101856828050708"><ele>141.33333333333334</ele><time>2026-04-02T07:23:08Z</time></trkpt><trkpt lat="43.23579254080391" lon="2.102041252813564"><ele>140.66666666666666</ele><time>2026-04-02T07:23:09Z</time></trkpt><trkpt lat="43.23592232691864" lon="2.1022264709140477"><ele>140.0</ele><time>2026-04-02T07:23:10Z</time></trkpt><trkpt lat="43.23605687916416" lon="2.102415154070673"><ele>139.66666666666666</ele><time>2026-04-02T07:23:11Z</time></trkpt><trkpt lat="43.236192724975645" lon="2.102604168187788"><ele>139.33333333333334</ele><time>2026-04-02T07:23:12Z</time></trkpt><trkpt lat="43.23632708888489" lon="2.102792552666312"><ele>139.0</ele><time>2026-04-02T07:23:13Z</time></trkpt><trkpt lat="43.236452679484664" lon="2.1029733288889245"><ele>138.66666666666669</ele><time>2026-04-02T07:23:14Z</time></trkpt><trkpt lat="43.236573532653544" lon="2.1031433850235546"><ele>138.33333333333334</ele><time>2026-04-02T07:23:15Z</time></trkpt><trkpt lat="43.23668830252723" lon="2.1033033389049867"><ele>138.0</ele><time>2026-04-02T07:23:16Z</time></trkpt><trkpt lat="43.23679166500009" lon="2.1034577033503696"><ele>138.0</ele><time>2026-04-02T07:23:17Z</time></trkpt><trkpt lat="43.23687994318107" lon="2.1036033571166444"><ele>138.0</ele><time>2026-04-02T07:23:18Z</time></trkpt><trkpt lat="43.23695062458823" lon="2.1037514241144106"><ele>138.0</ele><time>2026-04-02T07:23:19Z</time></trkpt><trkpt lat="43.23699999191746" lon="2.103905544149107"><ele>138.0</ele><time>2026-04-02T07:23:20Z</time></trkpt><trkpt lat="43.23703402199711" lon="2.104061584956532"><ele>138.0</ele><time>2026-04-02T07:23:21Z</time></trkpt><trkpt lat="43.23704927667456" lon="2.104226785082432"><ele>138.0</ele><time>2026-04-02T07:23:22Z</time></trkpt><trkpt lat="43.237047697793265" lon="2.1044046729917962"><ele>138.0</ele><time>2026-04-02T07:23:23Z</time></trkpt><trkpt lat="43.23710315539252" lon="2.1045874984058517"><ele>138.0</ele><time>2026-04-02T07:23:24Z</time></trkpt><trkpt lat="43.23711501759884" lon="2.1047925111191867"><ele>138.33333333333334</ele><time>2026-04-02T07:23:25Z</time></trkpt><trkpt lat="43.23711795374593" lon="2.1050198599877907"><ele>138.66666666666669</ele><time>2026-04-02T07:23:26Z</time></trkpt><trkpt lat="43.23707619204083" lon="2.105286711665682"><ele>139.0</ele><time>2026-04-02T07:23:27Z</time></trkpt><trkpt lat="43.236994679971666" lon="2.105566064984983"><ele>139.33333333333334</ele><time>2026-04-02T07:23:28Z</time></trkpt><trkpt lat="43.236885724827516" lon="2.1058450153835375"><ele>139.66666666666666</ele><time>2026-04-02T07:23:29Z</time></trkpt><trkpt lat="43.23676212668771" lon="2.1060905940002583"><ele>140.0</ele><time>2026-04-02T07:23:30Z</time></trkpt><trkpt lat="43.23661881687953" lon="2.106343971517731"><ele>140.5</ele><time>2026-04-02T07:23:31Z</time></trkpt><trkpt lat="43.23644554715708" lon="2.106603087804104"><ele>141.0</ele><time>2026-04-02T07:23:32Z</time></trkpt><trkpt lat="43.23626157792508" lon="2.1068556037313413"><ele>141.0</ele><time>2026-04-02T07:23:33Z</time></trkpt><trkpt lat="43.236088879644505" lon="2.1071003774315646"><ele>141.0</ele><time>2026-04-02T07:23:34Z</time></trkpt><trkpt lat="43.2359248719777" lon="2.1073509677887996"><ele>141.0</ele><time>2026-04-02T07:23:35Z</time></trkpt><trkpt lat="43.23576421256551" lon="2.107607701184562"><ele>141.0</ele><time>2026-04-02T07:23:36Z</time></trkpt><trkpt lat="43.23560205836335" lon="2.1078715949156526"><ele>141.0</ele><time>2026-04-02T07:23:37Z</time></trkpt><trkpt lat="43.2354436938523" lon="2.108142434854696"><ele>141.0</ele><time>2026-04-02T07:23:38Z</time></trkpt><trkpt lat="43.235296330837826" lon="2.1084236102430336"><ele>141.0</ele><time>2026-04-02T07:23:39Z</time></trkpt><trkpt lat="43.23516410889751" lon="2.1087155583511"><ele>141.0</ele><time>2026-04-02T07:23:40Z</time></trkpt><trkpt lat="43.2350365156366" lon="2.109012179201198"><ele>141.5</ele><time>2026-04-02T07:23:41Z</time></trkpt><trkpt lat="43.23491211826799" lon="2.109306020951589"><ele>142.0</ele><time>2026-04-02T07:23:42Z</time></trkpt><trkpt lat="43.2347912822258" lon="2.1096053791657754"><ele>143.0</ele><time>2026-04-02T07:23:43Z</time></trkpt><trkpt lat="43.23468417742806" lon="2.109909788187645"><ele>144.0</ele><time>2026-04-02T07:23:44Z</time></trkpt><trkpt lat="43.23459035735771" lon="2.1102220067964397"><ele>144.0</ele><time>2026-04-02T07:23:45Z</time></trkpt><trkpt lat="43.23450326894186" lon="2.1105341493280387"><ele>144.0</ele><time>2026-04-02T07:23:46Z</time></trkpt><trkpt lat="43.23442559010123" lon="2.1108484067334734"><ele>144.0</ele><time>2026-04-02T07:23:47Z</time></trkpt><trkpt lat="43.234356050659585" lon="2.111166841056284"><ele>144.0</ele><time>2026-04-02T07:23:48Z</time></trkpt><trkpt lat="43.23428612546926" lon="2.1114887843376"><ele>144.0</ele><time>2026-04-02T07:23:49Z</time></trkpt><trkpt lat="43.23422044517928" lon="2.1118162521287527"><ele>144.0</ele><time>2026-04-02T07:23:50Z</time></trkpt><trkpt lat="43.234165813092275" lon="2.1121476054946395"><ele>142.5</ele><time>2026-04-02T07:23:51Z</time></trkpt><trkpt lat="43.23412381661341" lon="2.1124815513723023"><ele>141.0</ele><time>2026-04-02T07:23:52Z</time></trkpt><trkpt lat="43.23408896474954" lon="2.11281849107475"><ele>141.0</ele><time>2026-04-02T07:23:53Z</time></trkpt><trkpt lat="43.23406576482936" lon="2.1131575464796817"><ele>141.0</ele><time>2026-04-02T07:23:54Z</time></trkpt><trkpt lat="43.23406271867287" lon="2.11350056060794"><ele>141.5</ele><time>2026-04-02T07:23:55Z</time></trkpt><trkpt lat="43.23408421399766" lon="2.1138438111423437"><ele>142.0</ele><time>2026-04-02T07:23:56Z</time></trkpt><trkpt lat="43.234117256692905" lon="2.114191806926333"><ele>142.5</ele><time>2026-04-02T07:23:57Z</time></trkpt><trkpt lat="43.234157064603494" lon="2.1145416477250687"><ele>143.0</ele><time>2026-04-02T07:23:58Z</time></trkpt><trkpt lat="43.23421234397541" lon="2.1148901748366375"><ele>142.5</ele><time>2026-04-02T07:23:59Z</time></trkpt><trkpt lat="43.23428908942357" lon="2.1152358124370525"><ele>142.0</ele><time>2026-04-02T07:24:00Z</time></trkpt><trkpt lat="43.23438630127828" lon="2.115570626283028"><ele>140.0</ele><time>2026-04-02T07:24:01Z</time></trkpt><trkpt lat="43.23450027989238" lon="2.1158925430376314"><ele>138.0</ele><time>2026-04-02T07:24:02Z</time></trkpt><trkpt lat="43.23462880570215" lon="2.1161986021331587"><ele>138.0</ele><time>2026-04-02T07:24:03Z</time></trkpt><trkpt lat="43.234771884012545" lon="2.1164854740796035"><ele>138.0</ele><time>2026-04-02T07:24:04Z</time></trkpt><trkpt lat="43.23491735070668" lon="2.116749448917265"><ele>137.66666666666666</ele><time>2026-04-02T07:24:05Z</time></trkpt><trkpt lat="43.23505983569096" lon="2.1169844534164843"><ele>137.33333333333331</ele><time>2026-04-02T07:24:06Z</time></trkpt><trkpt lat="43.23520890536541" lon="2.117192481484884"><ele>137.0</ele><time>2026-04-02T07:24:07Z</time></trkpt><trkpt lat="43.23535874303313" lon="2.117374374828705"><ele>137.5</ele><time>2026-04-02T07:24:08Z</time></trkpt><trkpt lat="43.23548253367374" lon="2.117533033700864"><ele>138.0</ele><time>2026-04-02T07:24:09Z</time></trkpt><trkpt lat="43.235580747186674" lon="2.1176779831407804"><ele>138.5</ele><time>2026-04-02T07:24:10Z</time></trkpt><trkpt lat="43.235633974369826" lon="2.117844937505534"><ele>139.0</ele><time>2026-04-02T07:24:11Z</time></trkpt><trkpt lat="43.2356296690734" lon="2.1180345158790317"><ele>139.0</ele><time>2026-04-02T07:24:12Z</time></trkpt><trkpt lat="43.23565450534722" lon="2.118197948986694"><ele>139.0</ele><time>2026-04-02T07:24:13Z</time></trkpt><trkpt lat="43.235737222555784" lon="2.1183113880907776"><ele>139.0</ele><time>2026-04-02T07:24:14Z</time></trkpt><trkpt lat="43.235869991646496" lon="2.1183758990931127"><ele>139.0</ele><time>2026-04-02T07:24:15Z</time></trkpt><trkpt lat="43.23602458779597" lon="2.118400325937441"><ele>139.0</ele><time>2026-04-02T07:24:16Z</time></trkpt><trkpt lat="43.23618147093813" lon="2.1184526735781417"><ele>139.0</ele><time>2026-04-02T07:24:17Z</time></trkpt><trkpt lat="43.23631777495207" lon="2.1186239230440282"><ele>139.0</ele><time>2026-04-02T07:24:18Z</time></trkpt><trkpt lat="43.23649427900142" lon="2.1188064314748645"><ele>138.5</ele><time>2026-04-02T07:24:19Z</time></trkpt><trkpt lat="43.23666443187031" lon="2.1190477674621477"><ele>138.0</ele><time>2026-04-02T07:24:20Z</time></trkpt><trkpt lat="43.23683798130483" lon="2.119289541237309"><ele>137.5</ele><time>2026-04-02T07:24:21Z</time></trkpt><trkpt lat="43.23701602964502" lon="2.119517570204687"><ele>137.0</ele><time>2026-04-02T07:24:22Z</time></trkpt><trkpt lat="43.237204757351584" lon="2.119754345163286"><ele>137.5</ele><time>2026-04-02T07:24:23Z</time></trkpt><trkpt lat="43.23739708804323" lon="2.1200091838815256"><ele>138.0</ele><time>2026-04-02T07:24:24Z</time></trkpt><trkpt lat="43.237591646346445" lon="2.1202645567467426"><ele>138.0</ele><time>2026-04-02T07:24:25Z</time></trkpt><trkpt lat="43.23777502980018" lon="2.1204955439652005"><ele>138.0</ele><time>2026-04-02T07:24:26Z</time></trkpt><trkpt lat="43.237955635657954" lon="2.1207211247972624"><ele>138.0</ele><time>2026-04-02T07:24:27Z</time></trkpt><trkpt lat="43.23813310128386" lon="2.1209539052925024"><ele>138.0</ele><time>2026-04-02T07:24:28Z</time></trkpt><trkpt lat="43.23830990284581" lon="2.121185374542007"><ele>138.0</ele><time>2026-04-02T07:24:29Z</time></trkpt><trkpt lat="43.238483332274846" lon="2.121414359296399"><ele>138.0</ele><time>2026-04-02T07:24:30Z</time></trkpt><trkpt lat="43.238660165122184" lon="2.1216354906515553"><ele>137.5</ele><time>2026-04-02T07:24:31Z</time></trkpt><trkpt lat="43.23883649771871" lon="2.1218569263047824"><ele>137.0</ele><time>2026-04-02T07:24:32Z</time></trkpt><trkpt lat="43.23900972920587" lon="2.1220835423288005"><ele>137.0</ele><time>2026-04-02T07:24:33Z</time></trkpt><trkpt lat="43.2391850981307" lon="2.122308028787281"><ele>137.0</ele><time>2026-04-02T07:24:34Z</time></trkpt><trkpt lat="43.23935871422923" lon="2.122528476215364"><ele>136.5</ele><time>2026-04-02T07:24:35Z</time></trkpt><trkpt lat="43.23953294701188" lon="2.1227489585320654"><ele>136.0</ele><time>2026-04-02T07:24:36Z</time></trkpt><trkpt lat="43.23970775274565" lon="2.1229759375171273"><ele>135.0</ele><time>2026-04-02T07:24:37Z</time></trkpt><trkpt lat="43.239884125320195" lon="2.123200841430909"><ele>134.0</ele><time>2026-04-02T07:24:38Z</time></trkpt><trkpt lat="43.24004997966524" lon="2.123414122543508"><ele>134.0</ele><time>2026-04-02T07:24:39Z</time></trkpt><trkpt lat="43.24020779824298" lon="2.1236185795005547"><ele>134.0</ele><time>2026-04-02T07:24:40Z</time></trkpt><trkpt lat="43.24036194455309" lon="2.1238223610708684"><ele>134.0</ele><time>2026-04-02T07:24:41Z</time></trkpt><trkpt lat="43.240510163395875" lon="2.1240297344662933"><ele>133.66666666666666</ele><time>2026-04-02T07:24:42Z</time></trkpt><trkpt lat="43.240647732532565" lon="2.1242394840387884"><ele>133.33333333333334</ele><time>2026-04-02T07:24:43Z</time></trkpt><trkpt lat="43.24076946544372" lon="2.1244554363533195"><ele>133.0</ele><time>2026-04-02T07:24:44Z</time></trkpt><trkpt lat="43.24087633667197" lon="2.124664161313961"><ele>133.0</ele><time>2026-04-02T07:24:45Z</time></trkpt><trkpt lat="43.24097207152517" lon="2.1248605000919447"><ele>133.0</ele><time>2026-04-02T07:24:46Z</time></trkpt><trkpt lat="43.241053517218006" lon="2.1250513240209736"><ele>133.0</ele><time>2026-04-02T07:24:47Z</time></trkpt><trkpt lat="43.24110428138371" lon="2.1252412223108728"><ele>132.8</ele><time>2026-04-02T07:24:48Z</time></trkpt><trkpt lat="43.24111152029495" lon="2.1254194184353095"><ele>132.60000000000002</ele><time>2026-04-02T07:24:49Z</time></trkpt><trkpt lat="43.24110253463609" lon="2.125570860858837"><ele>132.39999999999998</ele><time>2026-04-02T07:24:50Z</time></trkpt><trkpt lat="43.24113088580346" lon="2.1256894322789104"><ele>132.2</ele><time>2026-04-02T07:24:51Z</time></trkpt><trkpt lat="43.24121662034355" lon="2.125755555344342"><ele>132.0</ele><time>2026-04-02T07:24:52Z</time></trkpt><trkpt lat="43.241289838828195" lon="2.1258351031465796"><ele>132.0</ele><time>2026-04-02T07:24:53Z</time></trkpt><trkpt lat="43.241341553443405" lon="2.1259886110470223"><ele>132.0</ele><time>2026-04-02T07:24:54Z</time></trkpt><trkpt lat="43.24138906116088" lon="2.126149646270218"><ele>132.0</ele><time>2026-04-02T07:24:55Z</time></trkpt><trkpt lat="43.241408866572755" lon="2.1263356220569896"><ele>132.0</ele><time>2026-04-02T07:24:56Z</time></trkpt><trkpt lat="43.24144244390457" lon="2.1265689257038467"><ele>133.0</ele><time>2026-04-02T07:24:57Z</time></trkpt><trkpt lat="43.2414788042958" lon="2.1267942818616574"><ele>134.0</ele><time>2026-04-02T07:24:58Z</time></trkpt><trkpt lat="43.241483886781104" lon="2.1270020301888244"><ele>135.0</ele><time>2026-04-02T07:24:59Z</time></trkpt><trkpt lat="43.241494871185246" lon="2.1272090540440143"><ele>135.0</ele><time>2026-04-02T07:25:00Z</time></trkpt><trkpt lat="43.2415072170793" lon="2.12741709853033"><ele>135.0</ele><time>2026-04-02T07:25:01Z</time></trkpt><trkpt lat="43.24151203699839" lon="2.127625506027299"><ele>135.0</ele><time>2026-04-02T07:25:02Z</time></trkpt><trkpt lat="43.2415112419374" lon="2.1278382547084096"><ele>135.0</ele><time>2026-04-02T07:25:03Z</time></trkpt><trkpt lat="43.2415100650739" lon="2.128052346214087"><ele>135.0</ele><time>2026-04-02T07:25:04Z</time></trkpt><trkpt lat="43.24150923281472" lon="2.1282670517741527"><ele>135.0</ele><time>2026-04-02T07:25:05Z</time></trkpt><trkpt lat="43.24150272784809" lon="2.1284800460892583"><ele>134.66666666666666</ele><time>2026-04-02T07:25:06Z</time></trkpt><trkpt lat="43.24149391924181" lon="2.128707210107111"><ele>134.33333333333331</ele><time>2026-04-02T07:25:07Z</time></trkpt><trkpt lat="43.24149608309008" lon="2.1289433803984625"><ele>134.0</ele><time>2026-04-02T07:25:08Z</time></trkpt><trkpt lat="43.241507378537754" lon="2.1292075828936974"><ele>133.5</ele><time>2026-04-02T07:25:09Z</time></trkpt><trkpt lat="43.24150878965447" lon="2.1295170183811916"><ele>133.0</ele><time>2026-04-02T07:25:10Z</time></trkpt><trkpt lat="43.24150117830707" lon="2.1298576287625686"><ele>132.5</ele><time>2026-04-02T07:25:11Z</time></trkpt><trkpt lat="43.24149503019875" lon="2.1302096498267558"><ele>132.0</ele><time>2026-04-02T07:25:12Z</time></trkpt><trkpt lat="43.24149163589633" lon="2.130580642720816"><ele>132.5</ele><time>2026-04-02T07:25:13Z</time></trkpt><trkpt lat="43.24148651141717" lon="2.130967659479672"><ele>133.0</ele><time>2026-04-02T07:25:14Z</time></trkpt><trkpt lat="43.24147812688951" lon="2.1313960424761142"><ele>133.5</ele><time>2026-04-02T07:25:15Z</time></trkpt><trkpt lat="43.2414629678137" lon="2.1317775486152613"><ele>134.0</ele><time>2026-04-02T07:25:16Z</time></trkpt><trkpt lat="43.24144357025593" lon="2.132143278554232"><ele>133.0</ele><time>2026-04-02T07:25:17Z</time></trkpt><trkpt lat="43.241429083894204" lon="2.1325074033002442"><ele>132.0</ele><time>2026-04-02T07:25:18Z</time></trkpt><trkpt lat="43.241429913071876" lon="2.1328348862699795"><ele>132.0</ele><time>2026-04-02T07:25:19Z</time></trkpt><trkpt lat="43.24142939297492" lon="2.1331492087854365"><ele>132.0</ele><time>2026-04-02T07:25:20Z</time></trkpt><trkpt lat="43.241411050867576" lon="2.1334662683573966"><ele>132.0</ele><time>2026-04-02T07:25:21Z</time></trkpt><trkpt lat="43.241400711390334" lon="2.133763999028335"><ele>132.0</ele><time>2026-04-02T07:25:22Z</time></trkpt><trkpt lat="43.241387696413476" lon="2.1340096010486436"><ele>132.0</ele><time>2026-04-02T07:25:23Z</time></trkpt><trkpt lat="43.24137049600095" lon="2.1341967975635305"><ele>132.0</ele><time>2026-04-02T07:25:24Z</time></trkpt><trkpt lat="43.241334492756934" lon="2.1343366774161128"><ele>132.0</ele><time>2026-04-02T07:25:25Z</time></trkpt><trkpt lat="43.241263425616495" lon="2.134458377969395"><ele>132.0</ele><time>2026-04-02T07:25:26Z</time></trkpt><trkpt lat="43.241176243317824" lon="2.134554077423024"><ele>132.0</ele><time>2026-04-02T07:25:27Z</time></trkpt><trkpt lat="43.24115207435094" lon="2.1346720849765712"><ele>132.0</ele><time>2026-04-02T07:25:28Z</time></trkpt><trkpt lat="43.241195653794655" lon="2.1348278176119586"><ele>132.0</ele><time>2026-04-02T07:25:29Z</time></trkpt><trkpt lat="43.24129297662605" lon="2.1349792668643235"><ele>132.0</ele><time>2026-04-02T07:25:30Z</time></trkpt><trkpt lat="43.241369621555606" lon="2.1351618944471853"><ele>132.0</ele><time>2026-04-02T07:25:31Z</time></trkpt><trkpt lat="43.24139025187671" lon="2.1354138666647886"><ele>131.5</ele><time>2026-04-02T07:25:32Z</time></trkpt><trkpt lat="43.24137176397065" lon="2.1357332411032695"><ele>131.0</ele><time>2026-04-02T07:25:33Z</time></trkpt><trkpt lat="43.24137613765269" lon="2.1360647825918777"><ele>131.0</ele><time>2026-04-02T07:25:34Z</time></trkpt><trkpt lat="43.241375478869614" lon="2.1364141530237806"><ele>131.0</ele><time>2026-04-02T07:25:35Z</time></trkpt><trkpt lat="43.24136699024774" lon="2.136793446974953"><ele>130.5</ele><time>2026-04-02T07:25:36Z</time></trkpt><trkpt lat="43.241353848662506" lon="2.1371660151257705"><ele>130.0</ele><time>2026-04-02T07:25:37Z</time></trkpt><trkpt lat="43.24135003710514" lon="2.137544142070751"><ele>129.0</ele><time>2026-04-02T07:25:38Z</time></trkpt><trkpt lat="43.2413465431006" lon="2.1379513997719273"><ele>128.0</ele><time>2026-04-02T07:25:39Z</time></trkpt><trkpt lat="43.241337584040345" lon="2.13836334202025"><ele>128.0</ele><time>2026-04-02T07:25:40Z</time></trkpt><trkpt lat="43.241327964917275" lon="2.138790423881046"><ele>128.0</ele><time>2026-04-02T07:25:41Z</time></trkpt><trkpt lat="43.241322021462246" lon="2.13921431886181"><ele>128.0</ele><time>2026-04-02T07:25:42Z</time></trkpt><trkpt lat="43.24131561855966" lon="2.139638949097309"><ele>128.0</ele><time>2026-04-02T07:25:43Z</time></trkpt><trkpt lat="43.24130932307911" lon="2.140058780012835"><ele>128.5</ele><time>2026-04-02T07:25:44Z</time></trkpt><trkpt lat="43.241302179648365" lon="2.1404796657870455"><ele>129.0</ele><time>2026-04-02T07:25:45Z</time></trkpt><trkpt lat="43.24129121883101" lon="2.140898056010716"><ele>129.5</ele><time>2026-04-02T07:25:46Z</time></trkpt><trkpt lat="43.241279045964774" lon="2.1413160441113708"><ele>130.0</ele><time>2026-04-02T07:25:47Z</time></trkpt><trkpt lat="43.24126425876911" lon="2.1417309375363938"><ele>130.0</ele><time>2026-04-02T07:25:48Z</time></trkpt><trkpt lat="43.24124437064438" lon="2.1421429057195605"><ele>130.0</ele><time>2026-04-02T07:25:49Z</time></trkpt><trkpt lat="43.24122009787213" lon="2.14255189426573"><ele>129.5</ele><time>2026-04-02T07:25:50Z</time></trkpt><trkpt lat="43.24119322661964" lon="2.1429540144666746"><ele>129.0</ele><time>2026-04-02T07:25:51Z</time></trkpt><trkpt lat="43.24116515212391" lon="2.1433565941002413"><ele>128.5</ele><time>2026-04-02T07:25:52Z</time></trkpt><trkpt lat="43.24113904573404" lon="2.143747665626071"><ele>128.0</ele><time>2026-04-02T07:25:53Z</time></trkpt><trkpt lat="43.24111362178502" lon="2.1441362418069487"><ele>128.0</ele><time>2026-04-02T07:25:54Z</time></trkpt><trkpt lat="43.24108841351625" lon="2.144522239063754"><ele>128.0</ele><time>2026-04-02T07:25:55Z</time></trkpt><trkpt lat="43.241063940010484" lon="2.1449044497659737"><ele>128.0</ele><time>2026-04-02T07:25:56Z</time></trkpt><trkpt lat="43.24103579831696" lon="2.145287500397119"><ele>128.0</ele><time>2026-04-02T07:25:57Z</time></trkpt><trkpt lat="43.241006865449386" lon="2.1456651149796304"><ele>127.5</ele><time>2026-04-02T07:25:58Z</time></trkpt><trkpt lat="43.24097838376565" lon="2.1460583699588396"><ele>127.0</ele><time>2026-04-02T07:25:59Z</time></trkpt><trkpt lat="43.240948087956" lon="2.146460777129279"><ele>127.0</ele><time>2026-04-02T07:26:00Z</time></trkpt><trkpt lat="43.240913578567444" lon="2.1468706202201635"><ele>127.0</ele><time>2026-04-02T07:26:01Z</time></trkpt><trkpt lat="43.240878630219214" lon="2.1472822898851605"><ele>127.0</ele><time>2026-04-02T07:26:02Z</time></trkpt><trkpt lat="43.24084690293637" lon="2.1476822989217643"><ele>127.0</ele><time>2026-04-02T07:26:03Z</time></trkpt><trkpt lat="43.2408171687002" lon="2.1480751178565898"><ele>127.5</ele><time>2026-04-02T07:26:04Z</time></trkpt><trkpt lat="43.240787078707854" lon="2.1484690695874837"><ele>128.0</ele><time>2026-04-02T07:26:05Z</time></trkpt><trkpt lat="43.24075758360933" lon="2.148858786329383"><ele>127.5</ele><time>2026-04-02T07:26:06Z</time></trkpt><trkpt lat="43.24072628363153" lon="2.1492460294586593"><ele>127.0</ele><time>2026-04-02T07:26:07Z</time></trkpt><trkpt lat="43.240695279144205" lon="2.1496283876495554"><ele>127.0</ele><time>2026-04-02T07:26:08Z</time></trkpt><trkpt lat="43.2406630411255" lon="2.1500121819186626"><ele>127.0</ele><time>2026-04-02T07:26:09Z</time></trkpt><trkpt lat="43.24062617649972" lon="2.150398900746172"><ele>127.0</ele><time>2026-04-02T07:26:10Z</time></trkpt><trkpt lat="43.24058512338968" lon="2.1507845460362747"><ele>127.0</ele><time>2026-04-02T07:26:11Z</time></trkpt><trkpt lat="43.240547871047994" lon="2.1511668649391233"><ele>126.5</ele><time>2026-04-02T07:26:12Z</time></trkpt><trkpt lat="43.24051264741485" lon="2.1515484495785677"><ele>126.0</ele><time>2026-04-02T07:26:13Z</time></trkpt><trkpt lat="43.2404759540784" lon="2.1519243145220694"><ele>126.0</ele><time>2026-04-02T07:26:14Z</time></trkpt><trkpt lat="43.24043748010655" lon="2.152302540152761"><ele>126.0</ele><time>2026-04-02T07:26:15Z</time></trkpt><trkpt lat="43.24040083157273" lon="2.1526899456234574"><ele>126.0</ele><time>2026-04-02T07:26:16Z</time></trkpt><trkpt lat="43.24036267031312" lon="2.1530937141367565"><ele>126.0</ele><time>2026-04-02T07:26:17Z</time></trkpt><trkpt lat="43.240324778215204" lon="2.153508721914115"><ele>126.0</ele><time>2026-04-02T07:26:18Z</time></trkpt><trkpt lat="43.24029050706258" lon="2.1539204041370668"><ele>126.0</ele><time>2026-04-02T07:26:19Z</time></trkpt><trkpt lat="43.24026060905596" lon="2.154323345562087"><ele>127.0</ele><time>2026-04-02T07:26:20Z</time></trkpt><trkpt lat="43.24023356508484" lon="2.1547219218563156"><ele>128.0</ele><time>2026-04-02T07:26:21Z</time></trkpt><trkpt lat="43.24020478185591" lon="2.155117556175016"><ele>128.0</ele><time>2026-04-02T07:26:22Z</time></trkpt><trkpt lat="43.240174452546" lon="2.155532835310333"><ele>128.0</ele><time>2026-04-02T07:26:23Z</time></trkpt><trkpt lat="43.240144716193456" lon="2.155955540372377"><ele>127.5</ele><time>2026-04-02T07:26:24Z</time></trkpt><trkpt lat="43.24011779927881" lon="2.1563801661564916"><ele>127.0</ele><time>2026-04-02T07:26:25Z</time></trkpt><trkpt lat="43.24008835713953" lon="2.1567923376655864"><ele>126.0</ele><time>2026-04-02T07:26:26Z</time></trkpt><trkpt lat="43.24005783048725" lon="2.1571979894697453"><ele>125.0</ele><time>2026-04-02T07:26:27Z</time></trkpt><trkpt lat="43.24002905166093" lon="2.1575924165128195"><ele>125.0</ele><time>2026-04-02T07:26:28Z</time></trkpt><trkpt lat="43.239999991331565" lon="2.157978674677002"><ele>125.0</ele><time>2026-04-02T07:26:29Z</time></trkpt><trkpt lat="43.239970229759" lon="2.1583611496151596"><ele>125.5</ele><time>2026-04-02T07:26:30Z</time></trkpt><trkpt lat="43.23994480146846" lon="2.158745382658345"><ele>126.0</ele><time>2026-04-02T07:26:31Z</time></trkpt><trkpt lat="43.23992075235423" lon="2.1591479595105585"><ele>125.0</ele><time>2026-04-02T07:26:32Z</time></trkpt><trkpt lat="43.23989787613282" lon="2.1595605444975075"><ele>124.0</ele><time>2026-04-02T07:26:33Z</time></trkpt><trkpt lat="43.239870125963435" lon="2.1599648856184044"><ele>123.5</ele><time>2026-04-02T07:26:34Z</time></trkpt><trkpt lat="43.239842218730935" lon="2.1603531387894"><ele>123.0</ele><time>2026-04-02T07:26:35Z</time></trkpt><trkpt lat="43.23981134568903" lon="2.160714993456652"><ele>123.0</ele><time>2026-04-02T07:26:36Z</time></trkpt><trkpt lat="43.23978711810171" lon="2.161054530451803"><ele>123.0</ele><time>2026-04-02T07:26:37Z</time></trkpt><trkpt lat="43.23976518135459" lon="2.161379064836544"><ele>123.0</ele><time>2026-04-02T07:26:38Z</time></trkpt><trkpt lat="43.239742498487026" lon="2.1616929283433097"><ele>123.0</ele><time>2026-04-02T07:26:39Z</time></trkpt><trkpt lat="43.23972388760456" lon="2.1620006239256453"><ele>123.0</ele><time>2026-04-02T07:26:40Z</time></trkpt><trkpt lat="43.23970486363217" lon="2.1622922875578108"><ele>123.0</ele><time>2026-04-02T07:26:41Z</time></trkpt><trkpt lat="43.239685566022814" lon="2.162579283029624"><ele>123.0</ele><time>2026-04-02T07:26:42Z</time></trkpt><trkpt lat="43.23966442358441" lon="2.1628704802975447"><ele>123.66666666666666</ele><time>2026-04-02T07:26:43Z</time></trkpt><trkpt lat="43.23964444484029" lon="2.1631384778850746"><ele>124.33333333333333</ele><time>2026-04-02T07:26:44Z</time></trkpt><trkpt lat="43.2396212700302" lon="2.163402211467818"><ele>125.0</ele><time>2026-04-02T07:26:45Z</time></trkpt><trkpt lat="43.23960559845987" lon="2.163683710367787"><ele>125.0</ele><time>2026-04-02T07:26:46Z</time></trkpt><trkpt lat="43.23959234731935" lon="2.164043965325374"><ele>125.0</ele><time>2026-04-02T07:26:47Z</time></trkpt><trkpt lat="43.239552042021444" lon="2.1644179127548644"><ele>125.0</ele><time>2026-04-02T07:26:48Z</time></trkpt><trkpt lat="43.239531864522405" lon="2.164767093139834"><ele>125.0</ele><time>2026-04-02T07:26:49Z</time></trkpt><trkpt lat="43.2394929976043" lon="2.165106278582834"><ele>125.0</ele><time>2026-04-02T07:26:50Z</time></trkpt><trkpt lat="43.23946178063938" lon="2.16546047448527"><ele>125.0</ele><time>2026-04-02T07:26:51Z</time></trkpt><trkpt lat="43.23940910704213" lon="2.165828744492346"><ele>125.0</ele><time>2026-04-02T07:26:52Z</time></trkpt><trkpt lat="43.23933373413535" lon="2.1661727762536245"><ele>125.0</ele><time>2026-04-02T07:26:53Z</time></trkpt><trkpt lat="43.23926160979855" lon="2.16647611299265"><ele>125.66666666666666</ele><time>2026-04-02T07:26:54Z</time></trkpt><trkpt lat="43.23920383324797" lon="2.1667565089510274"><ele>126.33333333333334</ele><time>2026-04-02T07:26:55Z</time></trkpt><trkpt lat="43.239165049772566" lon="2.1670501055540243"><ele>127.0</ele><time>2026-04-02T07:26:56Z</time></trkpt><trkpt lat="43.239159482414664" lon="2.1673544043900654"><ele>128.0</ele><time>2026-04-02T07:26:57Z</time></trkpt><trkpt lat="43.23920714414718" lon="2.1676827819763362"><ele>129.0</ele><time>2026-04-02T07:26:58Z</time></trkpt><trkpt lat="43.239283085429406" lon="2.1679985451630643"><ele>128.33333333333334</ele><time>2026-04-02T07:26:59Z</time></trkpt><trkpt lat="43.23935026934132" lon="2.168273002100878"><ele>127.66666666666667</ele><time>2026-04-02T07:27:00Z</time></trkpt><trkpt lat="43.239390996132904" lon="2.16855126815139"><ele>127.0</ele><time>2026-04-02T07:27:01Z</time></trkpt><trkpt lat="43.23940344099459" lon="2.1688731126784204"><ele>125.5</ele><time>2026-04-02T07:27:02Z</time></trkpt><trkpt lat="43.23938098752787" lon="2.1692388170593917"><ele>124.0</ele><time>2026-04-02T07:27:03Z</time></trkpt><trkpt lat="43.23933693753908" lon="2.169634824044316"><ele>123.0</ele><time>2026-04-02T07:27:04Z</time></trkpt><trkpt lat="43.23930495244246" lon="2.170039259044125"><ele>122.0</ele><time>2026-04-02T07:27:05Z</time></trkpt><trkpt lat="43.2392841012746" lon="2.1704711505341963"><ele>121.5</ele><time>2026-04-02T07:27:06Z</time></trkpt><trkpt lat="43.23925660056543" lon="2.170911004046427"><ele>121.0</ele><time>2026-04-02T07:27:07Z</time></trkpt><trkpt lat="43.23922696578115" lon="2.1713633400589982"><ele>120.5</ele><time>2026-04-02T07:27:08Z</time></trkpt><trkpt lat="43.23919971723801" lon="2.1718015613032167"><ele>120.0</ele><time>2026-04-02T07:27:09Z</time></trkpt><trkpt lat="43.239175503117714" lon="2.17221603489202"><ele>120.5</ele><time>2026-04-02T07:27:10Z</time></trkpt><trkpt lat="43.23914607644327" lon="2.172615162683156"><ele>121.0</ele><time>2026-04-02T07:27:11Z</time></trkpt><trkpt lat="43.23910691905875" lon="2.173009388578607"><ele>120.5</ele><time>2026-04-02T07:27:12Z</time></trkpt><trkpt lat="43.23906925745674" lon="2.1733833401851688"><ele>120.0</ele><time>2026-04-02T07:27:13Z</time></trkpt><trkpt lat="43.239041065631156" lon="2.1737351752163727"><ele>120.0</ele><time>2026-04-02T07:27:14Z</time></trkpt><trkpt lat="43.23901599026959" lon="2.174052851781272"><ele>120.0</ele><time>2026-04-02T07:27:15Z</time></trkpt><trkpt lat="43.2389939429901" lon="2.174330152494051"><ele>120.0</ele><time>2026-04-02T07:27:16Z</time></trkpt><trkpt lat="43.23897771909756" lon="2.174548942210115"><ele>120.2</ele><time>2026-04-02T07:27:17Z</time></trkpt><trkpt lat="43.23896329982966" lon="2.1747013970375972"><ele>120.4</ele><time>2026-04-02T07:27:18Z</time></trkpt><trkpt lat="43.23895148154794" lon="2.1748010844193804"><ele>120.6</ele><time>2026-04-02T07:27:19Z</time></trkpt><trkpt lat="43.23901016202725" lon="2.1749707984509046"><ele>120.8</ele><time>2026-04-02T07:27:21Z</time></trkpt><trkpt lat="43.23910190483382" lon="2.175045462234428"><ele>121.0</ele><time>2026-04-02T07:27:22Z</time></trkpt><trkpt lat="43.23923393105006" lon="2.1751021750262325"><ele>121.0</ele><time>2026-04-02T07:27:23Z</time></trkpt><trkpt lat="43.23940443438935" lon="2.1751618924363907"><ele>121.0</ele><time>2026-04-02T07:27:24Z</time></trkpt><trkpt lat="43.23960270158561" lon="2.1752306886861"><ele>121.0</ele><time>2026-04-02T07:27:25Z</time></trkpt><trkpt lat="43.23982827655948" lon="2.1753102043666397"><ele>120.5</ele><time>2026-04-02T07:27:26Z</time></trkpt><trkpt lat="43.240044438243096" lon="2.17538671097184"><ele>120.0</ele><time>2026-04-02T07:27:27Z</time></trkpt><trkpt lat="43.24027792436121" lon="2.175466049206626"><ele>120.0</ele><time>2026-04-02T07:27:28Z</time></trkpt><trkpt lat="43.24053073663646" lon="2.175555493734446"><ele>120.0</ele><time>2026-04-02T07:27:29Z</time></trkpt><trkpt lat="43.240784642702884" lon="2.17564266490066"><ele>120.5</ele><time>2026-04-02T07:27:30Z</time></trkpt><trkpt lat="43.24102585664011" lon="2.175721774425189"><ele>121.0</ele><time>2026-04-02T07:27:31Z</time></trkpt><trkpt lat="43.24125738546377" lon="2.1757865701105756"><ele>120.0</ele><time>2026-04-02T07:27:32Z</time></trkpt><trkpt lat="43.24147770413519" lon="2.175842936355677"><ele>119.0</ele><time>2026-04-02T07:27:33Z</time></trkpt><trkpt lat="43.241679872322905" lon="2.1758920445152796"><ele>118.0</ele><time>2026-04-02T07:27:34Z</time></trkpt><trkpt lat="43.2418743701995" lon="2.1759275266877514"><ele>118.0</ele><time>2026-04-02T07:27:35Z</time></trkpt><trkpt lat="43.24205377860439" lon="2.175913287851738"><ele>118.0</ele><time>2026-04-02T07:27:36Z</time></trkpt><trkpt lat="43.24222427285183" lon="2.1758216999262694"><ele>118.0</ele><time>2026-04-02T07:27:37Z</time></trkpt><trkpt lat="43.24238400865902" lon="2.1756560951139865"><ele>118.0</ele><time>2026-04-02T07:27:38Z</time></trkpt><trkpt lat="43.24254663920536" lon="2.1754940873933006"><ele>118.0</ele><time>2026-04-02T07:27:39Z</time></trkpt><trkpt lat="43.24270721813144" lon="2.1754140745263686"><ele>118.0</ele><time>2026-04-02T07:27:40Z</time></trkpt><trkpt lat="43.24287237494785" lon="2.175436296705686"><ele>118.0</ele><time>2026-04-02T07:27:41Z</time></trkpt><trkpt lat="43.243031624604136" lon="2.1755029614596695"><ele>118.0</ele><time>2026-04-02T07:27:42Z</time></trkpt><trkpt lat="43.243203359032705" lon="2.1755800180299922"><ele>118.0</ele><time>2026-04-02T07:27:43Z</time></trkpt><trkpt lat="43.24339259592714" lon="2.1756376758117537"><ele>118.0</ele><time>2026-04-02T07:27:44Z</time></trkpt><trkpt lat="43.24360793540075" lon="2.1756594464618253"><ele>118.0</ele><time>2026-04-02T07:27:45Z</time></trkpt><trkpt lat="43.243824893352595" lon="2.1756030576105947"><ele>118.0</ele><time>2026-04-02T07:27:46Z</time></trkpt><trkpt lat="43.24404807405583" lon="2.175541509374703"><ele>118.0</ele><time>2026-04-02T07:27:47Z</time></trkpt><trkpt lat="43.244281252223104" lon="2.1755259203824737"><ele>118.0</ele><time>2026-04-02T07:27:48Z</time></trkpt><trkpt lat="43.2445223683919" lon="2.175530315265945"><ele>118.0</ele><time>2026-04-02T07:27:49Z</time></trkpt><trkpt lat="43.244763356306116" lon="2.1755352458829536"><ele>118.0</ele><time>2026-04-02T07:27:50Z</time></trkpt><trkpt lat="43.245002732566256" lon="2.17554872055302"><ele>118.5</ele><time>2026-04-02T07:27:51Z</time></trkpt><trkpt lat="43.24524523890377" lon="2.175571583598176"><ele>119.0</ele><time>2026-04-02T07:27:52Z</time></trkpt><trkpt lat="43.24548254070546" lon="2.175608991014085"><ele>119.0</ele><time>2026-04-02T07:27:53Z</time></trkpt><trkpt lat="43.245718467734065" lon="2.1756693916035177"><ele>119.0</ele><time>2026-04-02T07:27:54Z</time></trkpt><trkpt lat="43.24595299827576" lon="2.175743638010218"><ele>118.5</ele><time>2026-04-02T07:27:55Z</time></trkpt><trkpt lat="43.24618150567613" lon="2.1758268491742667"><ele>118.0</ele><time>2026-04-02T07:27:56Z</time></trkpt><trkpt lat="43.24640379480885" lon="2.1759085319375315"><ele>117.5</ele><time>2026-04-02T07:27:57Z</time></trkpt><trkpt lat="43.24662976191326" lon="2.175992794153091"><ele>117.0</ele><time>2026-04-02T07:27:58Z</time></trkpt><trkpt lat="43.246840426159146" lon="2.176082445390457"><ele>117.0</ele><time>2026-04-02T07:27:59Z</time></trkpt><trkpt lat="43.247039533058135" lon="2.176151966984726"><ele>117.0</ele><time>2026-04-02T07:28:00Z</time></trkpt><trkpt lat="43.247225410204464" lon="2.176187961341572"><ele>117.0</ele><time>2026-04-02T07:28:01Z</time></trkpt><trkpt lat="43.24740594881995" lon="2.1762112227382273"><ele>117.33333333333334</ele><time>2026-04-02T07:28:02Z</time></trkpt><trkpt lat="43.2475739791972" lon="2.1762333379308645"><ele>117.66666666666667</ele><time>2026-04-02T07:28:03Z</time></trkpt><trkpt lat="43.247748197307" lon="2.1762547259133163"><ele>118.0</ele><time>2026-04-02T07:28:04Z</time></trkpt><trkpt lat="43.24791290595714" lon="2.1762721048733153"><ele>118.0</ele><time>2026-04-02T07:28:05Z</time></trkpt><trkpt lat="43.24807326411859" lon="2.176295044500326"><ele>118.0</ele><time>2026-04-02T07:28:06Z</time></trkpt><trkpt lat="43.24824110498967" lon="2.17632352039231"><ele>118.0</ele><time>2026-04-02T07:28:07Z</time></trkpt><trkpt lat="43.24840746421526" lon="2.176355615351538"><ele>118.0</ele><time>2026-04-02T07:28:08Z</time></trkpt><trkpt lat="43.24857112627675" lon="2.1763861653683425"><ele>118.0</ele><time>2026-04-02T07:28:09Z</time></trkpt><trkpt lat="43.24872921635704" lon="2.1764158218590346"><ele>118.0</ele><time>2026-04-02T07:28:10Z</time></trkpt><trkpt lat="43.24888354185291" lon="2.176428508542147"><ele>118.0</ele><time>2026-04-02T07:28:11Z</time></trkpt><trkpt lat="43.249039171629605" lon="2.1764799185753483"><ele>118.0</ele><time>2026-04-02T07:28:12Z</time></trkpt><trkpt lat="43.24920193858095" lon="2.1765000139525625"><ele>118.0</ele><time>2026-04-02T07:28:13Z</time></trkpt><trkpt lat="43.249367237696404" lon="2.176495922958853"><ele>118.0</ele><time>2026-04-02T07:28:14Z</time></trkpt><trkpt lat="43.249524990691874" lon="2.1765265857368643"><ele>118.0</ele><time>2026-04-02T07:28:15Z</time></trkpt><trkpt lat="43.24967509080971" lon="2.1765353427048164"><ele>118.0</ele><time>2026-04-02T07:28:16Z</time></trkpt><trkpt lat="43.24981266942858" lon="2.176541250602825"><ele>118.0</ele><time>2026-04-02T07:28:17Z</time></trkpt><trkpt lat="43.24993971639837" lon="2.1765340898127095"><ele>118.0</ele><time>2026-04-02T07:28:18Z</time></trkpt><trkpt lat="43.250047629014844" lon="2.1765539687557753"><ele>118.00000000000001</ele><time>2026-04-02T07:28:19Z</time></trkpt><trkpt lat="43.250146289318074" lon="2.1765619057040952"><ele>118.00000000000001</ele><time>2026-04-02T07:28:20Z</time></trkpt><trkpt lat="43.250241387995715" lon="2.17656381189532"><ele>118.0</ele><time>2026-04-02T07:28:21Z</time></trkpt><trkpt lat="43.250325821395" lon="2.1765666008939117"><ele>118.0</ele><time>2026-04-02T07:28:22Z</time></trkpt><trkpt lat="43.25039125288727" lon="2.176573195012317"><ele>118.00000000000001</ele><time>2026-04-02T07:28:23Z</time></trkpt><trkpt lat="43.25046435845979" lon="2.1765810030371853"><ele>118.0</ele><time>2026-04-02T07:28:24Z</time></trkpt><trkpt lat="43.25054266706278" lon="2.176592175772738"><ele>118.0</ele><time>2026-04-02T07:28:25Z</time></trkpt><trkpt lat="43.25063077107621" lon="2.176609355048829"><ele>118.0</ele><time>2026-04-02T07:28:26Z</time></trkpt><trkpt lat="43.2507307862037" lon="2.176633504892065"><ele>118.00000000000001</ele><time>2026-04-02T07:28:27Z</time></trkpt><trkpt lat="43.250829480342595" lon="2.1766788046540864"><ele>118.0</ele><time>2026-04-02T07:28:28Z</time></trkpt><trkpt lat="43.25092047204294" lon="2.1767242724355604"><ele>118.0</ele><time>2026-04-02T07:28:29Z</time></trkpt><trkpt lat="43.25101175020567" lon="2.176772589873903"><ele>118.00000000000001</ele><time>2026-04-02T07:28:30Z</time></trkpt><trkpt lat="43.25108866128632" lon="2.176818601223952"><ele>118.00000000000001</ele><time>2026-04-02T07:28:31Z</time></trkpt><trkpt lat="43.25117651118914" lon="2.176869177454818"><ele>118.0</ele><time>2026-04-02T07:28:32Z</time></trkpt><trkpt lat="43.25126452373031" lon="2.1769145530258958"><ele>118.0</ele><time>2026-04-02T07:28:33Z</time></trkpt><trkpt lat="43.25135139590277" lon="2.1769583833132464"><ele>118.0</ele><time>2026-04-02T07:28:34Z</time></trkpt><trkpt lat="43.25143127124458" lon="2.1769983448240886"><ele>118.0</ele><time>2026-04-02T07:28:35Z</time></trkpt><trkpt lat="43.25150590210536" lon="2.1770391083343505"><ele>118.0</ele><time>2026-04-02T07:28:36Z</time></trkpt><trkpt lat="43.25157385698196" lon="2.177078979491997"><ele>118.0</ele><time>2026-04-02T07:28:37Z</time></trkpt><trkpt lat="43.251634680743344" lon="2.1771114067959316"><ele>118.0</ele><time>2026-04-02T07:28:38Z</time></trkpt><trkpt lat="43.25170126471427" lon="2.1771436647555795"><ele>118.0</ele><time>2026-04-02T07:28:39Z</time></trkpt><trkpt lat="43.251762870339" lon="2.177167945001113"><ele>118.0</ele><time>2026-04-02T07:28:40Z</time></trkpt><trkpt lat="43.25186823829557" lon="2.1772216723159348"><ele>118.60000000000001</ele><time>2026-04-02T07:28:42Z</time></trkpt><trkpt lat="43.25196366429104" lon="2.1772803636391074"><ele>119.20000000000002</ele><time>2026-04-02T07:28:44Z</time></trkpt><trkpt lat="43.25206739061965" lon="2.1773383488500055"><ele>119.8</ele><time>2026-04-02T07:28:46Z</time></trkpt><trkpt lat="43.25217826276429" lon="2.177400074365361"><ele>120.4</ele><time>2026-04-02T07:28:48Z</time></trkpt><trkpt lat="43.252283618307374" lon="2.1774501062050504"><ele>121.0</ele><time>2026-04-02T07:28:50Z</time></trkpt><trkpt lat="43.2523782212732" lon="2.1774959675909336"><ele>121.5</ele><time>2026-04-02T07:28:52Z</time></trkpt><trkpt lat="43.25248290201191" lon="2.177563353387919"><ele>122.0</ele><time>2026-04-02T07:28:54Z</time></trkpt><trkpt lat="43.25259212215602" lon="2.1776297701302205"><ele>122.5</ele><time>2026-04-02T07:28:56Z</time></trkpt><trkpt lat="43.25271093475677" lon="2.1776948979018806"><ele>123.0</ele><time>2026-04-02T07:28:58Z</time></trkpt><trkpt lat="43.25283357163216" lon="2.177756577056206"><ele>123.00000000000001</ele><time>2026-04-02T07:29:00Z</time></trkpt><trkpt lat="43.252898039871745" lon="2.177789614001449"><ele>123.0</ele><time>2026-04-02T07:29:01Z</time></trkpt><trkpt lat="43.25296206504489" lon="2.177820991697012"><ele>123.00000000000001</ele><time>2026-04-02T07:29:02Z</time></trkpt><trkpt lat="43.25302964247147" lon="2.1778532908030623"><ele>123.00000000000001</ele><time>2026-04-02T07:29:03Z</time></trkpt><trkpt lat="43.25309798637253" lon="2.1778845292172604"><ele>123.0</ele><time>2026-04-02T07:29:04Z</time></trkpt><trkpt lat="43.253166617714896" lon="2.1779155971596875"><ele>123.00000000000001</ele><time>2026-04-02T07:29:05Z</time></trkpt><trkpt lat="43.25323525657734" lon="2.1779467080851354"><ele>123.00000000000001</ele><time>2026-04-02T07:29:06Z</time></trkpt><trkpt lat="43.25329607826243" lon="2.1779736945152455"><ele>123.33333333333333</ele><time>2026-04-02T07:29:07Z</time></trkpt><trkpt lat="43.253400207461695" lon="2.178021396183807"><ele>123.66666666666666</ele><time>2026-04-02T07:29:09Z</time></trkpt><trkpt lat="43.25346530729298" lon="2.178051134890237"><ele>124.0</ele><time>2026-04-02T07:29:11Z</time></trkpt><trkpt lat="43.25354822127782" lon="2.1780895503026176"><ele>124.33333333333333</ele><time>2026-04-02T07:29:23Z</time></trkpt><trkpt lat="43.25360765608524" lon="2.1781297918599645"><ele>124.66666666666666</ele><time>2026-04-02T07:29:25Z</time></trkpt><trkpt lat="43.25365563206101" lon="2.178262546226427"><ele>125.0</ele><time>2026-04-02T07:29:27Z</time></trkpt><trkpt lat="43.253685154969915" lon="2.178348857817276"><ele>124.99999999999999</ele><time>2026-04-02T07:29:28Z</time></trkpt><trkpt lat="43.25373754737487" lon="2.178507927611853"><ele>125.0</ele><time>2026-04-02T07:29:30Z</time></trkpt><trkpt lat="43.253771682585956" lon="2.178603120406333"><ele>125.0</ele><time>2026-04-02T07:29:31Z</time></trkpt><trkpt lat="43.25381124389348" lon="2.178704981841941"><ele>125.0</ele><time>2026-04-02T07:29:32Z</time></trkpt><trkpt lat="43.253854333232916" lon="2.1787992680260557"><ele>124.99999999999999</ele><time>2026-04-02T07:29:33Z</time></trkpt><trkpt lat="43.253895011404765" lon="2.1788853566135904"><ele>125.0</ele><time>2026-04-02T07:29:34Z</time></trkpt><trkpt lat="43.25394084773851" lon="2.1789741763223427"><ele>124.66666666666666</ele><time>2026-04-02T07:29:35Z</time></trkpt><trkpt lat="43.2539900003311" lon="2.1790494942852616"><ele>124.33333333333333</ele><time>2026-04-02T07:29:36Z</time></trkpt><trkpt lat="43.254051880706626" lon="2.179125341523801"><ele>124.0</ele><time>2026-04-02T07:29:37Z</time></trkpt><trkpt lat="43.254124085244634" lon="2.1791967452186105"><ele>123.66666666666666</ele><time>2026-04-02T07:29:38Z</time></trkpt><trkpt lat="43.25419709112143" lon="2.179261602278753"><ele>123.33333333333333</ele><time>2026-04-02T07:29:39Z</time></trkpt><trkpt lat="43.25427400854509" lon="2.1793282477381766"><ele>123.0</ele><time>2026-04-02T07:29:40Z</time></trkpt><trkpt lat="43.254341929626136" lon="2.1794157632766393"><ele>123.0</ele><time>2026-04-02T07:29:41Z</time></trkpt><trkpt lat="43.25440375790389" lon="2.1795122279101125"><ele>123.00000000000001</ele><time>2026-04-02T07:29:42Z</time></trkpt><trkpt lat="43.25446250344013" lon="2.1796221056968923"><ele>123.00000000000001</ele><time>2026-04-02T07:29:43Z</time></trkpt><trkpt lat="43.25451912449236" lon="2.1797438639648856"><ele>123.0</ele><time>2026-04-02T07:29:44Z</time></trkpt><trkpt lat="43.25457858399407" lon="2.179874880658352"><ele>123.0</ele><time>2026-04-02T07:29:45Z</time></trkpt><trkpt lat="43.25464268954681" lon="2.1800242730621195"><ele>122.5</ele><time>2026-04-02T07:29:46Z</time></trkpt><trkpt lat="43.25470483902165" lon="2.1801709054954634"><ele>122.0</ele><time>2026-04-02T07:29:47Z</time></trkpt><trkpt lat="43.25475859474207" lon="2.18032530940699"><ele>121.5</ele><time>2026-04-02T07:29:48Z</time></trkpt><trkpt lat="43.254809809651135" lon="2.180488710498827"><ele>121.0</ele><time>2026-04-02T07:29:49Z</time></trkpt><trkpt lat="43.25485867825166" lon="2.180653869037259"><ele>121.0</ele><time>2026-04-02T07:29:50Z</time></trkpt><trkpt lat="43.254911388385175" lon="2.180819549202595"><ele>121.0</ele><time>2026-04-02T07:29:51Z</time></trkpt><trkpt lat="43.25496621350455" lon="2.1809855940955516"><ele>121.0</ele><time>2026-04-02T07:29:52Z</time></trkpt><trkpt lat="43.25501915811931" lon="2.181143970163494"><ele>121.0</ele><time>2026-04-02T07:29:53Z</time></trkpt><trkpt lat="43.25507390024635" lon="2.181302561538399"><ele>121.0</ele><time>2026-04-02T07:29:54Z</time></trkpt><trkpt lat="43.25512594671652" lon="2.1814646598953593"><ele>121.0</ele><time>2026-04-02T07:29:55Z</time></trkpt><trkpt lat="43.25517789825009" lon="2.181638141764591"><ele>121.0</ele><time>2026-04-02T07:29:56Z</time></trkpt><trkpt lat="43.25523642711272" lon="2.1818296005664974"><ele>121.0</ele><time>2026-04-02T07:29:57Z</time></trkpt><trkpt lat="43.2553023183236" lon="2.1820419125821564"><ele>121.33333333333334</ele><time>2026-04-02T07:29:58Z</time></trkpt><trkpt lat="43.25536554079643" lon="2.1822762974546386"><ele>121.66666666666666</ele><time>2026-04-02T07:29:59Z</time></trkpt><trkpt lat="43.255423257164956" lon="2.182518955077325"><ele>122.0</ele><time>2026-04-02T07:30:00Z</time></trkpt><trkpt lat="43.25547611417156" lon="2.1827686512871924"><ele>121.33333333333333</ele><time>2026-04-02T07:30:01Z</time></trkpt><trkpt lat="43.25553185125463" lon="2.183021364863971"><ele>120.66666666666666</ele><time>2026-04-02T07:30:02Z</time></trkpt><trkpt lat="43.25558897136764" lon="2.1832721125276295"><ele>120.0</ele><time>2026-04-02T07:30:03Z</time></trkpt><trkpt lat="43.255647306329585" lon="2.183531105255092"><ele>119.66666666666666</ele><time>2026-04-02T07:30:04Z</time></trkpt><trkpt lat="43.255705766127825" lon="2.1838052175230978"><ele>119.33333333333333</ele><time>2026-04-02T07:30:05Z</time></trkpt><trkpt lat="43.25576092153993" lon="2.184079771171654"><ele>119.0</ele><time>2026-04-02T07:30:06Z</time></trkpt><trkpt lat="43.25581001319197" lon="2.1843368257502"><ele>118.66666666666666</ele><time>2026-04-02T07:30:07Z</time></trkpt><trkpt lat="43.255855613887235" lon="2.1845753542814994"><ele>118.33333333333334</ele><time>2026-04-02T07:30:08Z</time></trkpt><trkpt lat="43.25590600602013" lon="2.184803161798264"><ele>118.0</ele><time>2026-04-02T07:30:09Z</time></trkpt><trkpt lat="43.25595724510163" lon="2.1850234888779165"><ele>118.0</ele><time>2026-04-02T07:30:10Z</time></trkpt><trkpt lat="43.256009874800945" lon="2.185266388525363"><ele>118.0</ele><time>2026-04-02T07:30:11Z</time></trkpt><trkpt lat="43.25607165896623" lon="2.185539444714457"><ele>118.0</ele><time>2026-04-02T07:30:12Z</time></trkpt><trkpt lat="43.256140535675584" lon="2.185827461781011"><ele>117.5</ele><time>2026-04-02T07:30:13Z</time></trkpt><trkpt lat="43.25621054394503" lon="2.1861315146979448"><ele>117.0</ele><time>2026-04-02T07:30:14Z</time></trkpt><trkpt lat="43.25628435769973" lon="2.186442124945811"><ele>117.0</ele><time>2026-04-02T07:30:15Z</time></trkpt><trkpt lat="43.256368799154394" lon="2.1867530799612953"><ele>117.0</ele><time>2026-04-02T07:30:16Z</time></trkpt><trkpt lat="43.256464658460246" lon="2.1870621953497666"><ele>118.5</ele><time>2026-04-02T07:30:17Z</time></trkpt><trkpt lat="43.25657207623097" lon="2.1873736750285646"><ele>120.0</ele><time>2026-04-02T07:30:18Z</time></trkpt><trkpt lat="43.25668725831113" lon="2.1876662639194127"><ele>120.0</ele><time>2026-04-02T07:30:19Z</time></trkpt><trkpt lat="43.25679890275111" lon="2.1879391878192864"><ele>120.0</ele><time>2026-04-02T07:30:20Z</time></trkpt><trkpt lat="43.25691555340865" lon="2.188214083649719"><ele>121.0</ele><time>2026-04-02T07:30:21Z</time></trkpt><trkpt lat="43.257032447774534" lon="2.188487904374593"><ele>122.0</ele><time>2026-04-02T07:30:22Z</time></trkpt><trkpt lat="43.257137071494334" lon="2.18878602690287"><ele>122.5</ele><time>2026-04-02T07:30:23Z</time></trkpt><trkpt lat="43.25726541190118" lon="2.189096461418837"><ele>123.0</ele><time>2026-04-02T07:30:24Z</time></trkpt><trkpt lat="43.2574094266724" lon="2.1894004568904273"><ele>124.5</ele><time>2026-04-02T07:30:25Z</time></trkpt><trkpt lat="43.2575356770988" lon="2.1897268388721014"><ele>126.0</ele><time>2026-04-02T07:30:26Z</time></trkpt><trkpt lat="43.257664167462686" lon="2.1900701613874616"><ele>126.0</ele><time>2026-04-02T07:30:27Z</time></trkpt><trkpt lat="43.25779217613164" lon="2.1904254382318107"><ele>126.0</ele><time>2026-04-02T07:30:28Z</time></trkpt><trkpt lat="43.25792134848114" lon="2.190784750541425"><ele>127.0</ele><time>2026-04-02T07:30:29Z</time></trkpt><trkpt lat="43.25804729277981" lon="2.191145339770091"><ele>128.0</ele><time>2026-04-02T07:30:30Z</time></trkpt><trkpt lat="43.25817157617595" lon="2.191504782675307"><ele>129.0</ele><time>2026-04-02T07:30:31Z</time></trkpt><trkpt lat="43.25829353669378" lon="2.191863982942837"><ele>130.0</ele><time>2026-04-02T07:30:32Z</time></trkpt><trkpt lat="43.25841587558769" lon="2.1922245799009463"><ele>130.0</ele><time>2026-04-02T07:30:33Z</time></trkpt><trkpt lat="43.25853973063676" lon="2.192589039876953"><ele>130.0</ele><time>2026-04-02T07:30:34Z</time></trkpt><trkpt lat="43.2586637183611" lon="2.192966039173984"><ele>129.5</ele><time>2026-04-02T07:30:35Z</time></trkpt><trkpt lat="43.25879009375357" lon="2.1933511074609493"><ele>129.0</ele><time>2026-04-02T07:30:36Z</time></trkpt><trkpt lat="43.258917107022455" lon="2.193736605113015"><ele>129.0</ele><time>2026-04-02T07:30:37Z</time></trkpt><trkpt lat="43.25904627560255" lon="2.1941236449136743"><ele>129.0</ele><time>2026-04-02T07:30:38Z</time></trkpt><trkpt lat="43.259174460812986" lon="2.1945135887630522"><ele>129.5</ele><time>2026-04-02T07:30:39Z</time></trkpt><trkpt lat="43.25929861039978" lon="2.19490250867162"><ele>130.0</ele><time>2026-04-02T07:30:40Z</time></trkpt><trkpt lat="43.259416230552695" lon="2.1952970788421835"><ele>130.0</ele><time>2026-04-02T07:30:41Z</time></trkpt><trkpt lat="43.25952894379433" lon="2.1956898037071273"><ele>130.0</ele><time>2026-04-02T07:30:42Z</time></trkpt><trkpt lat="43.25963957063623" lon="2.1960770351204224"><ele>130.0</ele><time>2026-04-02T07:30:43Z</time></trkpt><trkpt lat="43.25975428972775" lon="2.196464363882311"><ele>130.0</ele><time>2026-04-02T07:30:44Z</time></trkpt><trkpt lat="43.25986993647912" lon="2.1968411127105187"><ele>130.0</ele><time>2026-04-02T07:30:45Z</time></trkpt><trkpt lat="43.25998733775081" lon="2.19721432525272"><ele>130.0</ele><time>2026-04-02T07:30:46Z</time></trkpt><trkpt lat="43.260103590462315" lon="2.1975811724231504"><ele>130.0</ele><time>2026-04-02T07:30:47Z</time></trkpt><trkpt lat="43.26021838278458" lon="2.1979473141555586"><ele>130.0</ele><time>2026-04-02T07:30:48Z</time></trkpt><trkpt lat="43.260330540810116" lon="2.19830311407579"><ele>131.0</ele><time>2026-04-02T07:30:49Z</time></trkpt><trkpt lat="43.26044407899334" lon="2.1986311251124864"><ele>132.0</ele><time>2026-04-02T07:30:50Z</time></trkpt><trkpt lat="43.26055253160619" lon="2.1989524392143163"><ele>131.5</ele><time>2026-04-02T07:30:51Z</time></trkpt><trkpt lat="43.26065756259934" lon="2.199264434492363"><ele>131.0</ele><time>2026-04-02T07:30:52Z</time></trkpt><trkpt lat="43.26075959392537" lon="2.1995790921148526"><ele>131.5</ele><time>2026-04-02T07:30:53Z</time></trkpt><trkpt lat="43.2608534562701" lon="2.199889692504025"><ele>132.0</ele><time>2026-04-02T07:30:54Z</time></trkpt><trkpt lat="43.26093470035279" lon="2.2002060322547523"><ele>132.0</ele><time>2026-04-02T07:30:55Z</time></trkpt><trkpt lat="43.26099478455124" lon="2.2005403033526103"><ele>132.0</ele><time>2026-04-02T07:30:56Z</time></trkpt><trkpt lat="43.261029666893926" lon="2.2008796160988293"><ele>131.5</ele><time>2026-04-02T07:30:57Z</time></trkpt><trkpt lat="43.26105156683328" lon="2.2012192544035747"><ele>131.0</ele><time>2026-04-02T07:30:58Z</time></trkpt><trkpt lat="43.26108231073049" lon="2.201592345514903"><ele>130.5</ele><time>2026-04-02T07:30:59Z</time></trkpt><trkpt lat="43.26111000341897" lon="2.2019873513504122"><ele>130.0</ele><time>2026-04-02T07:31:00Z</time></trkpt><trkpt lat="43.26112567520687" lon="2.2023905131914536"><ele>129.5</ele><time>2026-04-02T07:31:01Z</time></trkpt><trkpt lat="43.26114585048784" lon="2.2027878309818747"><ele>129.0</ele><time>2026-04-02T07:31:02Z</time></trkpt><trkpt lat="43.261164739761014" lon="2.203182705099703"><ele>129.0</ele><time>2026-04-02T07:31:03Z</time></trkpt><trkpt lat="43.26117451245913" lon="2.203580979986963"><ele>129.0</ele><time>2026-04-02T07:31:04Z</time></trkpt><trkpt lat="43.26118236416281" lon="2.2039771842797453"><ele>129.5</ele><time>2026-04-02T07:31:05Z</time></trkpt><trkpt lat="43.261190364839415" lon="2.2043780189575406"><ele>130.0</ele><time>2026-04-02T07:31:06Z</time></trkpt><trkpt lat="43.26118958297967" lon="2.204780934782089"><ele>129.5</ele><time>2026-04-02T07:31:07Z</time></trkpt><trkpt lat="43.26117475435219" lon="2.2051875400412837"><ele>129.0</ele><time>2026-04-02T07:31:08Z</time></trkpt><trkpt lat="43.26116218691261" lon="2.2056000736253196"><ele>129.0</ele><time>2026-04-02T07:31:09Z</time></trkpt><trkpt lat="43.26115579908392" lon="2.206016284914681"><ele>129.0</ele><time>2026-04-02T07:31:10Z</time></trkpt><trkpt lat="43.261152192225985" lon="2.2064268166938903"><ele>129.0</ele><time>2026-04-02T07:31:11Z</time></trkpt><trkpt lat="43.26115793243844" lon="2.20683264207445"><ele>129.0</ele><time>2026-04-02T07:31:12Z</time></trkpt><trkpt lat="43.261171649482506" lon="2.2072344527791645"><ele>129.5</ele><time>2026-04-02T07:31:13Z</time></trkpt><trkpt lat="43.26118760360172" lon="2.207639190316038"><ele>130.0</ele><time>2026-04-02T07:31:14Z</time></trkpt><trkpt lat="43.26120842412292" lon="2.208042103831302"><ele>130.5</ele><time>2026-04-02T07:31:15Z</time></trkpt><trkpt lat="43.26123543563768" lon="2.2084451953551953"><ele>131.0</ele><time>2026-04-02T07:31:16Z</time></trkpt><trkpt lat="43.26126831077825" lon="2.208846281401058"><ele>130.5</ele><time>2026-04-02T07:31:17Z</time></trkpt><trkpt lat="43.26130335147976" lon="2.2092497427254045"><ele>130.0</ele><time>2026-04-02T07:31:18Z</time></trkpt><trkpt lat="43.26134298359736" lon="2.209649381977366"><ele>130.5</ele><time>2026-04-02T07:31:19Z</time></trkpt><trkpt lat="43.26138482576951" lon="2.2100451166397095"><ele>131.0</ele><time>2026-04-02T07:31:20Z</time></trkpt><trkpt lat="43.26142029760195" lon="2.210439531384603"><ele>130.0</ele><time>2026-04-02T07:31:21Z</time></trkpt><trkpt lat="43.26145410678753" lon="2.210830708642855"><ele>129.0</ele><time>2026-04-02T07:31:22Z</time></trkpt><trkpt lat="43.26148686294054" lon="2.2112255749423344"><ele>129.0</ele><time>2026-04-02T07:31:23Z</time></trkpt><trkpt lat="43.261519848186495" lon="2.2116206296374767"><ele>129.0</ele><time>2026-04-02T07:31:24Z</time></trkpt><trkpt lat="43.26154539810904" lon="2.2120125969114897"><ele>129.0</ele><time>2026-04-02T07:31:25Z</time></trkpt><trkpt lat="43.26155627768091" lon="2.2124027656134535"><ele>129.0</ele><time>2026-04-02T07:31:26Z</time></trkpt><trkpt lat="43.26154447574154" lon="2.2127907619197456"><ele>129.0</ele><time>2026-04-02T07:31:27Z</time></trkpt><trkpt lat="43.261514516915916" lon="2.21319022622606"><ele>129.0</ele><time>2026-04-02T07:31:28Z</time></trkpt><trkpt lat="43.26148532858197" lon="2.2135920056451472"><ele>129.0</ele><time>2026-04-02T07:31:29Z</time></trkpt><trkpt lat="43.261457690768445" lon="2.2139953222714412"><ele>129.0</ele><time>2026-04-02T07:31:30Z</time></trkpt><trkpt lat="43.26141726063809" lon="2.2144190034894766"><ele>128.0</ele><time>2026-04-02T07:31:31Z</time></trkpt><trkpt lat="43.26136098283249" lon="2.2148607461611234"><ele>127.0</ele><time>2026-04-02T07:31:32Z</time></trkpt><trkpt lat="43.26129282365226" lon="2.2153179003234116"><ele>127.0</ele><time>2026-04-02T07:31:33Z</time></trkpt><trkpt lat="43.261230858640076" lon="2.2157785854152565"><ele>127.0</ele><time>2026-04-02T07:31:34Z</time></trkpt><trkpt lat="43.261171221120364" lon="2.216237584241846"><ele>127.0</ele><time>2026-04-02T07:31:35Z</time></trkpt><trkpt lat="43.2611083390423" lon="2.2166847908697593"><ele>127.0</ele><time>2026-04-02T07:31:36Z</time></trkpt><trkpt lat="43.261043584280344" lon="2.217125712716056"><ele>127.5</ele><time>2026-04-02T07:31:37Z</time></trkpt><trkpt lat="43.26098558781074" lon="2.217567037401874"><ele>128.0</ele><time>2026-04-02T07:31:38Z</time></trkpt><trkpt lat="43.26092876898816" lon="2.2180006916204813"><ele>127.5</ele><time>2026-04-02T07:31:39Z</time></trkpt><trkpt lat="43.26086677320227" lon="2.218428707429858"><ele>127.0</ele><time>2026-04-02T07:31:40Z</time></trkpt><trkpt lat="43.26080703810513" lon="2.218851007041509"><ele>127.0</ele><time>2026-04-02T07:31:41Z</time></trkpt><trkpt lat="43.26075341800814" lon="2.219273058190126"><ele>127.0</ele><time>2026-04-02T07:31:42Z</time></trkpt><trkpt lat="43.260698229587" lon="2.219703554552609"><ele>127.0</ele><time>2026-04-02T07:31:43Z</time></trkpt><trkpt lat="43.260643005171325" lon="2.220129020178966"><ele>127.0</ele><time>2026-04-02T07:31:44Z</time></trkpt><trkpt lat="43.260584755500936" lon="2.220553649369439"><ele>126.5</ele><time>2026-04-02T07:31:45Z</time></trkpt><trkpt lat="43.260528557100706" lon="2.2209793621528227"><ele>126.0</ele><time>2026-04-02T07:31:46Z</time></trkpt><trkpt lat="43.26047231565257" lon="2.2214142880589725"><ele>126.5</ele><time>2026-04-02T07:31:47Z</time></trkpt><trkpt lat="43.260414207448186" lon="2.221846985381333"><ele>127.0</ele><time>2026-04-02T07:31:48Z</time></trkpt><trkpt lat="43.2603582377431" lon="2.222270679596179"><ele>126.0</ele><time>2026-04-02T07:31:49Z</time></trkpt><trkpt lat="43.26030705833647" lon="2.2226858883168084"><ele>125.0</ele><time>2026-04-02T07:31:50Z</time></trkpt><trkpt lat="43.26024590312144" lon="2.2231025551197408"><ele>124.5</ele><time>2026-04-02T07:31:51Z</time></trkpt><trkpt lat="43.26018891242078" lon="2.2235226658000435"><ele>124.0</ele><time>2026-04-02T07:31:52Z</time></trkpt><trkpt lat="43.26014898282926" lon="2.2239420295614165"><ele>124.0</ele><time>2026-04-02T07:31:53Z</time></trkpt><trkpt lat="43.26012787970663" lon="2.22436454212073"><ele>124.0</ele><time>2026-04-02T07:31:54Z</time></trkpt><trkpt lat="43.26011612241527" lon="2.2247899115387977"><ele>124.5</ele><time>2026-04-02T07:31:55Z</time></trkpt><trkpt lat="43.26011316242021" lon="2.225215555931868"><ele>125.0</ele><time>2026-04-02T07:31:56Z</time></trkpt><trkpt lat="43.26011114621887" lon="2.2256354383396713"><ele>125.0</ele><time>2026-04-02T07:31:57Z</time></trkpt><trkpt lat="43.260108246831116" lon="2.226051157195421"><ele>125.0</ele><time>2026-04-02T07:31:58Z</time></trkpt><trkpt lat="43.260099638801044" lon="2.226466449216513"><ele>124.5</ele><time>2026-04-02T07:31:59Z</time></trkpt><trkpt lat="43.26008173941641" lon="2.2268790324021333"><ele>124.0</ele><time>2026-04-02T07:32:00Z</time></trkpt><trkpt lat="43.260063849449274" lon="2.2272855641221194"><ele>122.5</ele><time>2026-04-02T07:32:01Z</time></trkpt><trkpt lat="43.26005297350078" lon="2.227693218552688"><ele>121.0</ele><time>2026-04-02T07:32:02Z</time></trkpt><trkpt lat="43.26004908445022" lon="2.2281031674359766"><ele>121.5</ele><time>2026-04-02T07:32:03Z</time></trkpt><trkpt lat="43.26004444073591" lon="2.2285287894014587"><ele>122.0</ele><time>2026-04-02T07:32:04Z</time></trkpt><trkpt lat="43.26003173455756" lon="2.228964080092269"><ele>121.0</ele><time>2026-04-02T07:32:05Z</time></trkpt><trkpt lat="43.260020229147585" lon="2.229413632512468"><ele>120.0</ele><time>2026-04-02T07:32:06Z</time></trkpt><trkpt lat="43.260010369980094" lon="2.2298535835970363"><ele>119.5</ele><time>2026-04-02T07:32:07Z</time></trkpt><trkpt lat="43.260007855132976" lon="2.23028106496058"><ele>119.0</ele><time>2026-04-02T07:32:08Z</time></trkpt><trkpt lat="43.26000397258433" lon="2.230707384036757"><ele>118.0</ele><time>2026-04-02T07:32:09Z</time></trkpt><trkpt lat="43.25999555343026" lon="2.2311275225966734"><ele>117.0</ele><time>2026-04-02T07:32:10Z</time></trkpt><trkpt lat="43.25998736213997" lon="2.23154239587377"><ele>117.0</ele><time>2026-04-02T07:32:11Z</time></trkpt><trkpt lat="43.25997863094976" lon="2.231954740971129"><ele>117.0</ele><time>2026-04-02T07:32:12Z</time></trkpt><trkpt lat="43.259968301003795" lon="2.2323709815380792"><ele>117.5</ele><time>2026-04-02T07:32:13Z</time></trkpt><trkpt lat="43.25995627113611" lon="2.2327829965421464"><ele>118.0</ele><time>2026-04-02T07:32:14Z</time></trkpt><trkpt lat="43.259947885059354" lon="2.2332105176654133"><ele>119.0</ele><time>2026-04-02T07:32:15Z</time></trkpt><trkpt lat="43.25994244084437" lon="2.2336465418703324"><ele>120.0</ele><time>2026-04-02T07:32:16Z</time></trkpt><trkpt lat="43.25993627191218" lon="2.2340846124469147"><ele>121.5</ele><time>2026-04-02T07:32:17Z</time></trkpt><trkpt lat="43.25992916076261" lon="2.2344990502079924"><ele>123.0</ele><time>2026-04-02T07:32:18Z</time></trkpt><trkpt lat="43.25991989590687" lon="2.234890633962237"><ele>124.0</ele><time>2026-04-02T07:32:19Z</time></trkpt><trkpt lat="43.25991117820182" lon="2.235267664458285"><ele>125.0</ele><time>2026-04-02T07:32:20Z</time></trkpt><trkpt lat="43.25990229439341" lon="2.235652837459743"><ele>125.0</ele><time>2026-04-02T07:32:21Z</time></trkpt><trkpt lat="43.25988651166415" lon="2.23605439346853"><ele>125.0</ele><time>2026-04-02T07:32:22Z</time></trkpt><trkpt lat="43.259867286364454" lon="2.236469765770647"><ele>125.0</ele><time>2026-04-02T07:32:23Z</time></trkpt><trkpt lat="43.25985110962263" lon="2.2368745295063963"><ele>125.0</ele><time>2026-04-02T07:32:24Z</time></trkpt><trkpt lat="43.25983695800595" lon="2.237272180797721"><ele>125.5</ele><time>2026-04-02T07:32:25Z</time></trkpt><trkpt lat="43.259824101143494" lon="2.237660264109843"><ele>126.0</ele><time>2026-04-02T07:32:26Z</time></trkpt><trkpt lat="43.259813980221054" lon="2.2380353544842957"><ele>125.5</ele><time>2026-04-02T07:32:27Z</time></trkpt><trkpt lat="43.25979844748237" lon="2.2384052666984817"><ele>125.0</ele><time>2026-04-02T07:32:28Z</time></trkpt><trkpt lat="43.259774119093805" lon="2.2387772593915476"><ele>125.5</ele><time>2026-04-02T07:32:29Z</time></trkpt><trkpt lat="43.259739124366135" lon="2.2391447267131426"><ele>126.0</ele><time>2026-04-02T07:32:30Z</time></trkpt><trkpt lat="43.25970461847432" lon="2.2395125475213953"><ele>126.0</ele><time>2026-04-02T07:32:31Z</time></trkpt><trkpt lat="43.25965233291224" lon="2.2398919396045494"><ele>126.0</ele><time>2026-04-02T07:32:32Z</time></trkpt><trkpt lat="43.25960157772039" lon="2.240296121587824"><ele>125.5</ele><time>2026-04-02T07:32:33Z</time></trkpt><trkpt lat="43.259555913831846" lon="2.2407136478346743"><ele>125.0</ele><time>2026-04-02T07:32:34Z</time></trkpt><trkpt lat="43.2594843284697" lon="2.2411268821829506"><ele>125.5</ele><time>2026-04-02T07:32:35Z</time></trkpt><trkpt lat="43.2594230699024" lon="2.2415371540599325"><ele>126.0</ele><time>2026-04-02T07:32:36Z</time></trkpt><trkpt lat="43.25937314403544" lon="2.2419482739528545"><ele>126.0</ele><time>2026-04-02T07:32:37Z</time></trkpt><trkpt lat="43.25932176621834" lon="2.242358227520575"><ele>126.0</ele><time>2026-04-02T07:32:38Z</time></trkpt><trkpt lat="43.259273265286176" lon="2.242760760611919"><ele>126.0</ele><time>2026-04-02T07:32:39Z</time></trkpt><trkpt lat="43.25922817369647" lon="2.243158266950169"><ele>126.0</ele><time>2026-04-02T07:32:40Z</time></trkpt><trkpt lat="43.25919034191137" lon="2.2435428743683654"><ele>126.0</ele><time>2026-04-02T07:32:41Z</time></trkpt><trkpt lat="43.259152385838746" lon="2.2439256490423665"><ele>126.0</ele><time>2026-04-02T07:32:42Z</time></trkpt><trkpt lat="43.2591171721295" lon="2.244308567349502"><ele>126.0</ele><time>2026-04-02T07:32:43Z</time></trkpt><trkpt lat="43.259092997359595" lon="2.244690001106676"><ele>126.0</ele><time>2026-04-02T07:32:44Z</time></trkpt><trkpt lat="43.25907902445031" lon="2.24508155663574"><ele>125.5</ele><time>2026-04-02T07:32:45Z</time></trkpt><trkpt lat="43.259063098896725" lon="2.2454991527115262"><ele>125.0</ele><time>2026-04-02T07:32:46Z</time></trkpt><trkpt lat="43.25904244816831" lon="2.245938999664802"><ele>125.0</ele><time>2026-04-02T07:32:47Z</time></trkpt><trkpt lat="43.25902274169942" lon="2.2463758432862426"><ele>125.0</ele><time>2026-04-02T07:32:48Z</time></trkpt><trkpt lat="43.25900371237004" lon="2.2467743453971876"><ele>124.5</ele><time>2026-04-02T07:32:49Z</time></trkpt><trkpt lat="43.25898464689695" lon="2.24714955654515"><ele>124.0</ele><time>2026-04-02T07:32:50Z</time></trkpt><trkpt lat="43.2589629088682" lon="2.247505524514644"><ele>123.0</ele><time>2026-04-02T07:32:51Z</time></trkpt><trkpt lat="43.258944534542124" lon="2.2478331859328473"><ele>122.0</ele><time>2026-04-02T07:32:52Z</time></trkpt><trkpt lat="43.258929008720806" lon="2.2481314113806223"><ele>122.0</ele><time>2026-04-02T07:32:53Z</time></trkpt><trkpt lat="43.25891505360567" lon="2.2483774840032846"><ele>122.0</ele><time>2026-04-02T07:32:54Z</time></trkpt><trkpt lat="43.25889018661286" lon="2.2486133537046733"><ele>122.0</ele><time>2026-04-02T07:32:55Z</time></trkpt><trkpt lat="43.25883917470686" lon="2.2488254828389374"><ele>122.33333333333333</ele><time>2026-04-02T07:32:56Z</time></trkpt><trkpt lat="43.25875835489371" lon="2.249020532578372"><ele>122.66666666666666</ele><time>2026-04-02T07:32:57Z</time></trkpt><trkpt lat="43.25870982928687" lon="2.2492103807370105"><ele>123.0</ele><time>2026-04-02T07:32:58Z</time></trkpt><trkpt lat="43.25871751671168" lon="2.24944813001359"><ele>123.0</ele><time>2026-04-02T07:32:59Z</time></trkpt><trkpt lat="43.258686931100314" lon="2.2497128633662213"><ele>123.0</ele><time>2026-04-02T07:33:00Z</time></trkpt><trkpt lat="43.25860143254788" lon="2.2500033996036892"><ele>123.0</ele><time>2026-04-02T07:33:01Z</time></trkpt><trkpt lat="43.25850054215638" lon="2.2503047443955175"><ele>123.0</ele><time>2026-04-02T07:33:02Z</time></trkpt><trkpt lat="43.25841303235953" lon="2.250622386261213"><ele>123.0</ele><time>2026-04-02T07:33:03Z</time></trkpt><trkpt lat="43.25833039987389" lon="2.2509380900087668"><ele>123.0</ele><time>2026-04-02T07:33:04Z</time></trkpt><trkpt lat="43.25824991111063" lon="2.251260918727499"><ele>123.0</ele><time>2026-04-02T07:33:05Z</time></trkpt><trkpt lat="43.25818772075594" lon="2.2515954833855676"><ele>123.5</ele><time>2026-04-02T07:33:06Z</time></trkpt><trkpt lat="43.2581319698485" lon="2.251935735387444"><ele>124.0</ele><time>2026-04-02T07:33:07Z</time></trkpt><trkpt lat="43.25807168153692" lon="2.252277251605256"><ele>123.0</ele><time>2026-04-02T07:33:08Z</time></trkpt><trkpt lat="43.25802259877884" lon="2.2526200518180897"><ele>122.0</ele><time>2026-04-02T07:33:09Z</time></trkpt><trkpt lat="43.25798940171586" lon="2.252961339920619"><ele>122.5</ele><time>2026-04-02T07:33:10Z</time></trkpt><trkpt lat="43.25796639817883" lon="2.2532997156141197"><ele>123.0</ele><time>2026-04-02T07:33:11Z</time></trkpt><trkpt lat="43.257944856397536" lon="2.25363599175941"><ele>123.0</ele><time>2026-04-02T07:33:12Z</time></trkpt><trkpt lat="43.257918495341734" lon="2.2539692236600195"><ele>123.0</ele><time>2026-04-02T07:33:13Z</time></trkpt><trkpt lat="43.25788792947686" lon="2.2543052627717577"><ele>123.0</ele><time>2026-04-02T07:33:14Z</time></trkpt><trkpt lat="43.257852005585754" lon="2.254640864458648"><ele>123.0</ele><time>2026-04-02T07:33:15Z</time></trkpt><trkpt lat="43.25780347568522" lon="2.2549772156026555"><ele>122.5</ele><time>2026-04-02T07:33:16Z</time></trkpt><trkpt lat="43.25774543356523" lon="2.2553103695995915"><ele>122.0</ele><time>2026-04-02T07:33:17Z</time></trkpt><trkpt lat="43.25767657751884" lon="2.2556463320954556"><ele>120.5</ele><time>2026-04-02T07:33:18Z</time></trkpt><trkpt lat="43.25759940625754" lon="2.2560013423969982"><ele>119.0</ele><time>2026-04-02T07:33:19Z</time></trkpt><trkpt lat="43.257515882392525" lon="2.2563591174851974"><ele>118.0</ele><time>2026-04-02T07:33:20Z</time></trkpt><trkpt lat="43.257432217889594" lon="2.256713914445725"><ele>117.0</ele><time>2026-04-02T07:33:21Z</time></trkpt><trkpt lat="43.257347569519084" lon="2.257070125191717"><ele>118.5</ele><time>2026-04-02T07:33:22Z</time></trkpt><trkpt lat="43.25725832704726" lon="2.2574232224885025"><ele>120.0</ele><time>2026-04-02T07:33:23Z</time></trkpt><trkpt lat="43.25717120980583" lon="2.2577638174407175"><ele>120.0</ele><time>2026-04-02T07:33:24Z</time></trkpt><trkpt lat="43.25708558800544" lon="2.2580847544724487"><ele>120.0</ele><time>2026-04-02T07:33:25Z</time></trkpt><trkpt lat="43.25700458114722" lon="2.258383042938993"><ele>120.0</ele><time>2026-04-02T07:33:26Z</time></trkpt><trkpt lat="43.256925995609734" lon="2.2586668361099216"><ele>120.0</ele><time>2026-04-02T07:33:27Z</time></trkpt><trkpt lat="43.25683799324541" lon="2.2589267168554503"><ele>120.0</ele><time>2026-04-02T07:33:28Z</time></trkpt><trkpt lat="43.25673253678958" lon="2.259179645237892"><ele>118.33333333333334</ele><time>2026-04-02T07:33:29Z</time></trkpt><trkpt lat="43.25661967857649" lon="2.2594016405725412"><ele>116.66666666666667</ele><time>2026-04-02T07:33:30Z</time></trkpt><trkpt lat="43.25651411410129" lon="2.259586452175905"><ele>115.0</ele><time>2026-04-02T07:33:31Z</time></trkpt><trkpt lat="43.25640822293702" lon="2.2597527791024663"><ele>114.0</ele><time>2026-04-02T07:33:32Z</time></trkpt><trkpt lat="43.25631073073368" lon="2.259913559613848"><ele>113.0</ele><time>2026-04-02T07:33:33Z</time></trkpt><trkpt lat="43.25622555241201" lon="2.260078698487711"><ele>112.0</ele><time>2026-04-02T07:33:34Z</time></trkpt><trkpt lat="43.256158771333176" lon="2.2602553433281"><ele>111.0</ele><time>2026-04-02T07:33:35Z</time></trkpt><trkpt lat="43.25609663056806" lon="2.260445278938099"><ele>111.5</ele><time>2026-04-02T07:33:36Z</time></trkpt><trkpt lat="43.25603749673845" lon="2.2606398851177065"><ele>112.0</ele><time>2026-04-02T07:33:37Z</time></trkpt><trkpt lat="43.25598642836284" lon="2.260829827491089"><ele>112.5</ele><time>2026-04-02T07:33:38Z</time></trkpt><trkpt lat="43.25594445376066" lon="2.261006526978297"><ele>113.0</ele><time>2026-04-02T07:33:39Z</time></trkpt><trkpt lat="43.25589175733229" lon="2.26116558747454"><ele>113.0</ele><time>2026-04-02T07:33:40Z</time></trkpt><trkpt lat="43.25583943514355" lon="2.2613347300688047"><ele>113.0</ele><time>2026-04-02T07:33:41Z</time></trkpt><trkpt lat="43.255787448499724" lon="2.2615151383366423"><ele>113.0</ele><time>2026-04-02T07:33:42Z</time></trkpt><trkpt lat="43.25574488164661" lon="2.261687944362149"><ele>113.0</ele><time>2026-04-02T07:33:43Z</time></trkpt><trkpt lat="43.25571332905381" lon="2.2618322960342585"><ele>113.0</ele><time>2026-04-02T07:33:44Z</time></trkpt><trkpt lat="43.2556751916592" lon="2.261931851736939"><ele>113.0</ele><time>2026-04-02T07:33:45Z</time></trkpt><trkpt lat="43.255862071143895" lon="2.262055113058813"><ele>113.0</ele><time>2026-04-02T07:33:48Z</time></trkpt><trkpt lat="43.25601284986991" lon="2.2620522557591225"><ele>113.0</ele><time>2026-04-02T07:33:49Z</time></trkpt><trkpt lat="43.25616779413514" lon="2.2620804474853307"><ele>113.0</ele><time>2026-04-02T07:33:50Z</time></trkpt><trkpt lat="43.256335604689646" lon="2.262107047738512"><ele>113.0</ele><time>2026-04-02T07:33:51Z</time></trkpt><trkpt lat="43.25653249665149" lon="2.2621561265767673"><ele>113.0</ele><time>2026-04-02T07:33:52Z</time></trkpt><trkpt lat="43.2567412079362" lon="2.262217952520932"><ele>111.33333333333333</ele><time>2026-04-02T07:33:53Z</time></trkpt><trkpt lat="43.25694471537356" lon="2.2622683857046537"><ele>109.66666666666666</ele><time>2026-04-02T07:33:54Z</time></trkpt><trkpt lat="43.2571417977226" lon="2.262311105095722"><ele>108.0</ele><time>2026-04-02T07:33:55Z</time></trkpt><trkpt lat="43.257343339384676" lon="2.262363233890348"><ele>107.33333333333334</ele><time>2026-04-02T07:33:56Z</time></trkpt><trkpt lat="43.25754548910228" lon="2.2624336317145164"><ele>106.66666666666667</ele><time>2026-04-02T07:33:57Z</time></trkpt><trkpt lat="43.25774348435743" lon="2.2625176123195954"><ele>106.0</ele><time>2026-04-02T07:33:58Z</time></trkpt><trkpt lat="43.25794052388378" lon="2.262596254948296"><ele>106.33333333333334</ele><time>2026-04-02T07:33:59Z</time></trkpt><trkpt lat="43.25813305055211" lon="2.2626512385512405"><ele>106.66666666666666</ele><time>2026-04-02T07:34:00Z</time></trkpt><trkpt lat="43.25832545528765" lon="2.2626717291945986"><ele>107.0</ele><time>2026-04-02T07:34:01Z</time></trkpt><trkpt lat="43.2585230598904" lon="2.2626787365431063"><ele>107.0</ele><time>2026-04-02T07:34:02Z</time></trkpt><trkpt lat="43.25872202738346" lon="2.26267372609302"><ele>107.0</ele><time>2026-04-02T07:34:03Z</time></trkpt><trkpt lat="43.25891685459777" lon="2.2626474264194094"><ele>107.0</ele><time>2026-04-02T07:34:04Z</time></trkpt><trkpt lat="43.25911113242291" lon="2.2626095723331545"><ele>106.33333333333333</ele><time>2026-04-02T07:34:05Z</time></trkpt><trkpt lat="43.25931799396636" lon="2.262579520778514"><ele>105.66666666666666</ele><time>2026-04-02T07:34:06Z</time></trkpt><trkpt lat="43.25952858543264" lon="2.2625301166601814"><ele>105.0</ele><time>2026-04-02T07:34:07Z</time></trkpt><trkpt lat="43.25974753397388" lon="2.262456769767247"><ele>105.5</ele><time>2026-04-02T07:34:08Z</time></trkpt><trkpt lat="43.2599794024211" lon="2.2623858733569473"><ele>106.0</ele><time>2026-04-02T07:34:09Z</time></trkpt><trkpt lat="43.260202039418445" lon="2.262321765114489"><ele>106.66666666666667</ele><time>2026-04-02T07:34:10Z</time></trkpt><trkpt lat="43.2603992213475" lon="2.2622511702479398"><ele>107.33333333333334</ele><time>2026-04-02T07:34:11Z</time></trkpt><trkpt lat="43.26057538879911" lon="2.2621722965325173"><ele>108.0</ele><time>2026-04-02T07:34:12Z</time></trkpt><trkpt lat="43.260732208372765" lon="2.2620730853894706"><ele>108.5</ele><time>2026-04-02T07:34:13Z</time></trkpt><trkpt lat="43.260867663777326" lon="2.2619574415763557"><ele>109.0</ele><time>2026-04-02T07:34:14Z</time></trkpt><trkpt lat="43.2609546335307" lon="2.261829597736655"><ele>109.5</ele><time>2026-04-02T07:34:15Z</time></trkpt><trkpt lat="43.26100274036625" lon="2.2616703322095697"><ele>110.0</ele><time>2026-04-02T07:34:16Z</time></trkpt><trkpt lat="43.26101893552315" lon="2.2614695508445464"><ele>110.75</ele><time>2026-04-02T07:34:17Z</time></trkpt><trkpt lat="43.261028252687034" lon="2.2612607125439186"><ele>111.5</ele><time>2026-04-02T07:34:18Z</time></trkpt><trkpt lat="43.26110653790502" lon="2.2611245883754125"><ele>112.25</ele><time>2026-04-02T07:34:19Z</time></trkpt><trkpt lat="43.26120432568623" lon="2.2610533912055493"><ele>113.0</ele><time>2026-04-02T07:34:20Z</time></trkpt><trkpt lat="43.26132745969989" lon="2.261045837265147"><ele>113.0</ele><time>2026-04-02T07:34:21Z</time></trkpt><trkpt lat="43.26147896306038" lon="2.2610316946022935"><ele>113.0</ele><time>2026-04-02T07:34:22Z</time></trkpt><trkpt lat="43.26164698763269" lon="2.2610084297029758"><ele>113.0</ele><time>2026-04-02T07:34:23Z</time></trkpt><trkpt lat="43.26182807389395" lon="2.261010594855991"><ele>113.0</ele><time>2026-04-02T07:34:24Z</time></trkpt><trkpt lat="43.26202088177998" lon="2.2610041227720985"><ele>113.0</ele><time>2026-04-02T07:34:25Z</time></trkpt><trkpt lat="43.262213421268335" lon="2.261011242802444"><ele>113.0</ele><time>2026-04-02T07:34:26Z</time></trkpt><trkpt lat="43.26239532365327" lon="2.2610236254801372"><ele>112.66666666666666</ele><time>2026-04-02T07:34:27Z</time></trkpt><trkpt lat="43.26256243915301" lon="2.2610354058771036"><ele>112.33333333333334</ele><time>2026-04-02T07:34:28Z</time></trkpt><trkpt lat="43.262713719144486" lon="2.260995676038744"><ele>112.0</ele><time>2026-04-02T07:34:29Z</time></trkpt><trkpt lat="43.26284059111376" lon="2.260890620526379"><ele>112.0</ele><time>2026-04-02T07:34:30Z</time></trkpt><trkpt lat="43.262930339986305" lon="2.2607309449827997"><ele>112.0</ele><time>2026-04-02T07:34:31Z</time></trkpt><trkpt lat="43.26300510920138" lon="2.2605352066717"><ele>112.0</ele><time>2026-04-02T07:34:32Z</time></trkpt><trkpt lat="43.2630914768985" lon="2.260336263744782"><ele>113.0</ele><time>2026-04-02T07:34:33Z</time></trkpt><trkpt lat="43.26321360654615" lon="2.2601827437653172"><ele>114.0</ele><time>2026-04-02T07:34:34Z</time></trkpt><trkpt lat="43.26336002456341" lon="2.2600815826444176"><ele>115.0</ele><time>2026-04-02T07:34:35Z</time></trkpt><trkpt lat="43.26351764688848" lon="2.2600250762489367"><ele>115.0</ele><time>2026-04-02T07:34:36Z</time></trkpt><trkpt lat="43.26369963434568" lon="2.260029309245394"><ele>115.0</ele><time>2026-04-02T07:34:37Z</time></trkpt><trkpt lat="43.2638932985501" lon="2.2600079872198453"><ele>115.0</ele><time>2026-04-02T07:34:38Z</time></trkpt><trkpt lat="43.26409056879227" lon="2.259977032605436"><ele>115.0</ele><time>2026-04-02T07:34:39Z</time></trkpt><trkpt lat="43.26429092306347" lon="2.259888743223531"><ele>115.0</ele><time>2026-04-02T07:34:40Z</time></trkpt><trkpt lat="43.264486492847716" lon="2.2597696805142715"><ele>115.0</ele><time>2026-04-02T07:34:41Z</time></trkpt><trkpt lat="43.26466601936437" lon="2.259659991168187"><ele>116.66666666666667</ele><time>2026-04-02T07:34:42Z</time></trkpt><trkpt lat="43.26484582404126" lon="2.259552245864772"><ele>118.33333333333334</ele><time>2026-04-02T07:34:43Z</time></trkpt><trkpt lat="43.26503980028387" lon="2.2594391077812337"><ele>120.0</ele><time>2026-04-02T07:34:44Z</time></trkpt><trkpt lat="43.2652465399384" lon="2.2593431452553197"><ele>120.0</ele><time>2026-04-02T07:34:45Z</time></trkpt><trkpt lat="43.265464808282466" lon="2.259304557002479"><ele>120.0</ele><time>2026-04-02T07:34:46Z</time></trkpt><trkpt lat="43.2656920904054" lon="2.2592880920585454"><ele>120.0</ele><time>2026-04-02T07:34:47Z</time></trkpt><trkpt lat="43.26591441867901" lon="2.2592580431675997"><ele>119.33333333333334</ele><time>2026-04-02T07:34:48Z</time></trkpt><trkpt lat="43.266136711159916" lon="2.2592628814465736"><ele>118.66666666666667</ele><time>2026-04-02T07:34:49Z</time></trkpt><trkpt lat="43.26636195021405" lon="2.2592527116155807"><ele>118.0</ele><time>2026-04-02T07:34:50Z</time></trkpt><trkpt lat="43.26658504416584" lon="2.2592544855157217"><ele>118.0</ele><time>2026-04-02T07:34:51Z</time></trkpt><trkpt lat="43.266808649175964" lon="2.2592781896499496"><ele>118.0</ele><time>2026-04-02T07:34:52Z</time></trkpt><trkpt lat="43.267029056708175" lon="2.2593313698378945"><ele>118.0</ele><time>2026-04-02T07:34:53Z</time></trkpt><trkpt lat="43.26724598604118" lon="2.25938132268135"><ele>118.33333333333334</ele><time>2026-04-02T07:34:54Z</time></trkpt><trkpt lat="43.267458666971336" lon="2.259377538926076"><ele>118.66666666666666</ele><time>2026-04-02T07:34:55Z</time></trkpt><trkpt lat="43.267678947486644" lon="2.2593230700352676"><ele>119.0</ele><time>2026-04-02T07:34:56Z</time></trkpt><trkpt lat="43.26788903894967" lon="2.2592287976278036"><ele>119.0</ele><time>2026-04-02T07:34:57Z</time></trkpt><trkpt lat="43.26810249555727" lon="2.259110012055665"><ele>119.0</ele><time>2026-04-02T07:34:58Z</time></trkpt><trkpt lat="43.268318115054285" lon="2.2589768569822906"><ele>121.0</ele><time>2026-04-02T07:34:59Z</time></trkpt><trkpt lat="43.268527359299156" lon="2.2588383259521496"><ele>123.0</ele><time>2026-04-02T07:35:00Z</time></trkpt><trkpt lat="43.26872941277457" lon="2.2586920762304414"><ele>123.0</ele><time>2026-04-02T07:35:01Z</time></trkpt><trkpt lat="43.26893990127178" lon="2.258543978057809"><ele>123.0</ele><time>2026-04-02T07:35:02Z</time></trkpt><trkpt lat="43.269157062486904" lon="2.2583993693854745"><ele>126.0</ele><time>2026-04-02T07:35:03Z</time></trkpt><trkpt lat="43.26937640388533" lon="2.25827611625034"><ele>129.0</ele><time>2026-04-02T07:35:04Z</time></trkpt><trkpt lat="43.26959919688957" lon="2.2581708772474096"><ele>133.5</ele><time>2026-04-02T07:35:05Z</time></trkpt><trkpt lat="43.26981978591977" lon="2.2580722388703687"><ele>138.0</ele><time>2026-04-02T07:35:06Z</time></trkpt><trkpt lat="43.270037612447815" lon="2.257959242203647"><ele>138.0</ele><time>2026-04-02T07:35:07Z</time></trkpt><trkpt lat="43.27025852991073" lon="2.257862718838739"><ele>138.0</ele><time>2026-04-02T07:35:08Z</time></trkpt><trkpt lat="43.27047651668272" lon="2.257768623154198"><ele>141.0</ele><time>2026-04-02T07:35:09Z</time></trkpt><trkpt lat="43.2707002915287" lon="2.2576922329031888"><ele>144.0</ele><time>2026-04-02T07:35:10Z</time></trkpt><trkpt lat="43.27091883830308" lon="2.2576315514903498"><ele>144.0</ele><time>2026-04-02T07:35:11Z</time></trkpt><trkpt lat="43.271127985319" lon="2.2575825070210955"><ele>144.0</ele><time>2026-04-02T07:35:12Z</time></trkpt><trkpt lat="43.27132754241332" lon="2.257508497549683"><ele>144.0</ele><time>2026-04-02T07:35:13Z</time></trkpt><trkpt lat="43.27153215652974" lon="2.2574060670263516"><ele>146.0</ele><time>2026-04-02T07:35:14Z</time></trkpt><trkpt lat="43.27173309881858" lon="2.2572947484880426"><ele>148.0</ele><time>2026-04-02T07:35:15Z</time></trkpt><trkpt lat="43.27192958857233" lon="2.2571758882202575"><ele>150.0</ele><time>2026-04-02T07:35:16Z</time></trkpt><trkpt lat="43.27211854263431" lon="2.257056382649474"><ele>152.0</ele><time>2026-04-02T07:35:17Z</time></trkpt><trkpt lat="43.27230738701044" lon="2.256945746247335"><ele>154.0</ele><time>2026-04-02T07:35:18Z</time></trkpt><trkpt lat="43.27248378503185" lon="2.256850474577913"><ele>156.0</ele><time>2026-04-02T07:35:19Z</time></trkpt><trkpt lat="43.27266808898918" lon="2.256751162697249"><ele>156.0</ele><time>2026-04-02T07:35:20Z</time></trkpt><trkpt lat="43.2728573872397" lon="2.256655670777289"><ele>156.0</ele><time>2026-04-02T07:35:21Z</time></trkpt><trkpt lat="43.27306246792849" lon="2.2565696161405113"><ele>156.0</ele><time>2026-04-02T07:35:22Z</time></trkpt><trkpt lat="43.2732708941428" lon="2.25648621257498"><ele>157.33333333333334</ele><time>2026-04-02T07:35:23Z</time></trkpt><trkpt lat="43.273481492632385" lon="2.2563990591949925"><ele>158.66666666666669</ele><time>2026-04-02T07:35:24Z</time></trkpt><trkpt lat="43.27368948052892" lon="2.2563086132279864"><ele>160.0</ele><time>2026-04-02T07:35:25Z</time></trkpt><trkpt lat="43.273894423305414" lon="2.256221166248902"><ele>161.33333333333334</ele><time>2026-04-02T07:35:26Z</time></trkpt><trkpt lat="43.27410672503544" lon="2.2561378154488274"><ele>162.66666666666666</ele><time>2026-04-02T07:35:27Z</time></trkpt><trkpt lat="43.274318621981195" lon="2.256054721912677"><ele>164.0</ele><time>2026-04-02T07:35:28Z</time></trkpt><trkpt lat="43.27452823864386" lon="2.2559703082081017"><ele>164.0</ele><time>2026-04-02T07:35:29Z</time></trkpt><trkpt lat="43.27473298096648" lon="2.255880337073679"><ele>164.0</ele><time>2026-04-02T07:35:30Z</time></trkpt><trkpt lat="43.274938112992125" lon="2.255788412332168"><ele>164.0</ele><time>2026-04-02T07:35:31Z</time></trkpt><trkpt lat="43.275149264234074" lon="2.2556969417317427"><ele>164.33333333333331</ele><time>2026-04-02T07:35:32Z</time></trkpt><trkpt lat="43.27535931214414" lon="2.255596501278379"><ele>164.66666666666666</ele><time>2026-04-02T07:35:33Z</time></trkpt><trkpt lat="43.27556285260111" lon="2.2554760777380403"><ele>165.0</ele><time>2026-04-02T07:35:34Z</time></trkpt><trkpt lat="43.27575382478785" lon="2.2553613719091925"><ele>167.0</ele><time>2026-04-02T07:35:35Z</time></trkpt><trkpt lat="43.275942121529674" lon="2.2552553964732627"><ele>169.0</ele><time>2026-04-02T07:35:36Z</time></trkpt><trkpt lat="43.27612596829282" lon="2.255159816590267"><ele>171.0</ele><time>2026-04-02T07:35:37Z</time></trkpt><trkpt lat="43.27632475112709" lon="2.2550661077225858"><ele>172.33333333333334</ele><time>2026-04-02T07:35:38Z</time></trkpt><trkpt lat="43.27651437870808" lon="2.25499515155336"><ele>173.66666666666669</ele><time>2026-04-02T07:35:39Z</time></trkpt><trkpt lat="43.276696657449115" lon="2.2549511226387002"><ele>175.0</ele><time>2026-04-02T07:35:40Z</time></trkpt><trkpt lat="43.27689047432287" lon="2.254889451839013"><ele>174.5</ele><time>2026-04-02T07:35:41Z</time></trkpt><trkpt lat="43.277096739378514" lon="2.2547721548455755"><ele>174.0</ele><time>2026-04-02T07:35:42Z</time></trkpt><trkpt lat="43.277305835386045" lon="2.254611862969386"><ele>173.0</ele><time>2026-04-02T07:35:43Z</time></trkpt><trkpt lat="43.27752574083856" lon="2.2544699477740813"><ele>172.0</ele><time>2026-04-02T07:35:44Z</time></trkpt><trkpt lat="43.277758041507994" lon="2.2543716872902686"><ele>172.0</ele><time>2026-04-02T07:35:45Z</time></trkpt><trkpt lat="43.27798533544913" lon="2.2543080994424325"><ele>172.0</ele><time>2026-04-02T07:35:46Z</time></trkpt><trkpt lat="43.27820864299871" lon="2.2542533934169735"><ele>171.66666666666669</ele><time>2026-04-02T07:35:47Z</time></trkpt><trkpt lat="43.278423001365354" lon="2.2541979133442966"><ele>171.33333333333334</ele><time>2026-04-02T07:35:48Z</time></trkpt><trkpt lat="43.27862832978745" lon="2.2541427989906055"><ele>171.0</ele><time>2026-04-02T07:35:49Z</time></trkpt><trkpt lat="43.27882734652398" lon="2.254092344164979"><ele>171.0</ele><time>2026-04-02T07:35:50Z</time></trkpt><trkpt lat="43.27901480249246" lon="2.2540501084372258"><ele>171.0</ele><time>2026-04-02T07:35:51Z</time></trkpt><trkpt lat="43.27919976326153" lon="2.2540022991840862"><ele>171.0</ele><time>2026-04-02T07:35:52Z</time></trkpt><trkpt lat="43.27939229381042" lon="2.2539513855631625"><ele>171.33333333333334</ele><time>2026-04-02T07:35:53Z</time></trkpt><trkpt lat="43.2795976070159" lon="2.2539298896530813"><ele>171.66666666666669</ele><time>2026-04-02T07:35:54Z</time></trkpt><trkpt lat="43.279810358823966" lon="2.2539393506437064"><ele>172.0</ele><time>2026-04-02T07:35:55Z</time></trkpt><trkpt lat="43.28001487558579" lon="2.2539505198876917"><ele>173.66666666666669</ele><time>2026-04-02T07:35:56Z</time></trkpt><trkpt lat="43.28019019267755" lon="2.253955037804271"><ele>175.33333333333334</ele><time>2026-04-02T07:35:57Z</time></trkpt><trkpt lat="43.28034913368888" lon="2.253962244351531"><ele>177.0</ele><time>2026-04-02T07:35:58Z</time></trkpt><trkpt lat="43.280504023054725" lon="2.253997494322902"><ele>178.0</ele><time>2026-04-02T07:35:59Z</time></trkpt><trkpt lat="43.28067965332333" lon="2.2540735648007675"><ele>179.0</ele><time>2026-04-02T07:36:00Z</time></trkpt><trkpt lat="43.28086236031893" lon="2.2542020505367306"><ele>180.0</ele><time>2026-04-02T07:36:01Z</time></trkpt><trkpt lat="43.28105387011002" lon="2.2543698418101643"><ele>180.0</ele><time>2026-04-02T07:36:02Z</time></trkpt><trkpt lat="43.28125191972195" lon="2.2545354095781778"><ele>180.0</ele><time>2026-04-02T07:36:03Z</time></trkpt><trkpt lat="43.28145413336761" lon="2.254681064930441"><ele>180.0</ele><time>2026-04-02T07:36:04Z</time></trkpt><trkpt lat="43.28165818390054" lon="2.2548344965676934"><ele>180.0</ele><time>2026-04-02T07:36:05Z</time></trkpt><trkpt lat="43.28185157128447" lon="2.2549902675373774"><ele>180.0</ele><time>2026-04-02T07:36:06Z</time></trkpt><trkpt lat="43.28203058582877" lon="2.2551270381581507"><ele>180.0</ele><time>2026-04-02T07:36:07Z</time></trkpt><trkpt lat="43.28219904305972" lon="2.255247733597896"><ele>180.0</ele><time>2026-04-02T07:36:08Z</time></trkpt><trkpt lat="43.28238323294086" lon="2.255380855403906"><ele>181.0</ele><time>2026-04-02T07:36:09Z</time></trkpt><trkpt lat="43.28257970568231" lon="2.2555181555086676"><ele>182.0</ele><time>2026-04-02T07:36:10Z</time></trkpt><trkpt lat="43.282779969410406" lon="2.255654445435824"><ele>183.0</ele><time>2026-04-02T07:36:11Z</time></trkpt><trkpt lat="43.28297605318059" lon="2.2557844922088917"><ele>182.66666666666666</ele><time>2026-04-02T07:36:12Z</time></trkpt><trkpt lat="43.28316864605988" lon="2.25590236818177"><ele>182.33333333333331</ele><time>2026-04-02T07:36:13Z</time></trkpt><trkpt lat="43.28335735946494" lon="2.25599090928261"><ele>182.0</ele><time>2026-04-02T07:36:14Z</time></trkpt><trkpt lat="43.283549068446824" lon="2.256044213408841"><ele>182.0</ele><time>2026-04-02T07:36:15Z</time></trkpt><trkpt lat="43.28375326473032" lon="2.2560681085045986"><ele>182.0</ele><time>2026-04-02T07:36:16Z</time></trkpt><trkpt lat="43.28396463038822" lon="2.2560852142809575"><ele>182.0</ele><time>2026-04-02T07:36:17Z</time></trkpt><trkpt lat="43.28418217386442" lon="2.2561023007105554"><ele>183.0</ele><time>2026-04-02T07:36:18Z</time></trkpt><trkpt lat="43.28440931574886" lon="2.2561092289533398"><ele>184.0</ele><time>2026-04-02T07:36:19Z</time></trkpt><trkpt lat="43.28463344137146" lon="2.256100089247112"><ele>184.33333333333334</ele><time>2026-04-02T07:36:20Z</time></trkpt><trkpt lat="43.28485062476853" lon="2.2560664135391693"><ele>184.66666666666666</ele><time>2026-04-02T07:36:21Z</time></trkpt><trkpt lat="43.28507387101627" lon="2.2559969054477853"><ele>185.0</ele><time>2026-04-02T07:36:22Z</time></trkpt><trkpt lat="43.2853041434829" lon="2.255902945944505"><ele>185.0</ele><time>2026-04-02T07:36:23Z</time></trkpt><trkpt lat="43.28553776781049" lon="2.2558080062045187"><ele>185.0</ele><time>2026-04-02T07:36:24Z</time></trkpt><trkpt lat="43.28577252123602" lon="2.2557194606214006"><ele>186.0</ele><time>2026-04-02T07:36:25Z</time></trkpt><trkpt lat="43.286006914449395" lon="2.2556319085590864"><ele>187.0</ele><time>2026-04-02T07:36:26Z</time></trkpt><trkpt lat="43.28623620852576" lon="2.255547095982598"><ele>188.5</ele><time>2026-04-02T07:36:27Z</time></trkpt><trkpt lat="43.28646250060129" lon="2.2554651220464748"><ele>190.0</ele><time>2026-04-02T07:36:28Z</time></trkpt><trkpt lat="43.286692208874086" lon="2.2553887870401352"><ele>190.0</ele><time>2026-04-02T07:36:29Z</time></trkpt><trkpt lat="43.28690733923664" lon="2.2553110384701633"><ele>190.0</ele><time>2026-04-02T07:36:30Z</time></trkpt><trkpt lat="43.287109191794144" lon="2.255233042497283"><ele>190.0</ele><time>2026-04-02T07:36:31Z</time></trkpt><trkpt lat="43.287302896808356" lon="2.255161408209703"><ele>191.0</ele><time>2026-04-02T07:36:32Z</time></trkpt><trkpt lat="43.28747533575427" lon="2.255098683087376"><ele>192.0</ele><time>2026-04-02T07:36:33Z</time></trkpt><trkpt lat="43.28763796982565" lon="2.2550520723422625"><ele>193.0</ele><time>2026-04-02T07:36:34Z</time></trkpt><trkpt lat="43.2877967236229" lon="2.2550341626866985"><ele>193.0</ele><time>2026-04-02T07:36:35Z</time></trkpt><trkpt lat="43.287956516418944" lon="2.2550829783368855"><ele>193.0</ele><time>2026-04-02T07:36:36Z</time></trkpt><trkpt lat="43.28811569496176" lon="2.255115708024996"><ele>193.0</ele><time>2026-04-02T07:36:37Z</time></trkpt><trkpt lat="43.28826883637963" lon="2.2551723954742804"><ele>194.66666666666666</ele><time>2026-04-02T07:36:38Z</time></trkpt><trkpt lat="43.28842078038285" lon="2.2552171359491866"><ele>196.33333333333331</ele><time>2026-04-02T07:36:39Z</time></trkpt><trkpt lat="43.2885706305772" lon="2.2552626696566005"><ele>198.0</ele><time>2026-04-02T07:36:40Z</time></trkpt><trkpt lat="43.28872186971431" lon="2.2553065412770184"><ele>198.0</ele><time>2026-04-02T07:36:41Z</time></trkpt><trkpt lat="43.288896483351834" lon="2.2553365687526328"><ele>198.0</ele><time>2026-04-02T07:36:42Z</time></trkpt><trkpt lat="43.28906882370146" lon="2.2553266811559567"><ele>198.0</ele><time>2026-04-02T07:36:43Z</time></trkpt><trkpt lat="43.28923044879543" lon="2.255290276622136"><ele>200.0</ele><time>2026-04-02T07:36:44Z</time></trkpt><trkpt lat="43.28940032715622" lon="2.2552280025937206"><ele>202.0</ele><time>2026-04-02T07:36:45Z</time></trkpt><trkpt lat="43.289558551169485" lon="2.2551491663897325"><ele>204.0</ele><time>2026-04-02T07:36:46Z</time></trkpt><trkpt lat="43.289715132245675" lon="2.2550534271519203"><ele>205.0</ele><time>2026-04-02T07:36:47Z</time></trkpt><trkpt lat="43.28986719294384" lon="2.2549312262191434"><ele>206.0</ele><time>2026-04-02T07:36:48Z</time></trkpt><trkpt lat="43.29000979770762" lon="2.2547950002947896"><ele>207.0</ele><time>2026-04-02T07:36:49Z</time></trkpt><trkpt lat="43.29013829626733" lon="2.2546623517109157"><ele>207.0</ele><time>2026-04-02T07:36:50Z</time></trkpt><trkpt lat="43.29026319313995" lon="2.2545198464821996"><ele>207.0</ele><time>2026-04-02T07:36:51Z</time></trkpt><trkpt lat="43.290402157802355" lon="2.254352562651057"><ele>207.0</ele><time>2026-04-02T07:36:52Z</time></trkpt><trkpt lat="43.29053967405489" lon="2.2541496628311823"><ele>208.66666666666669</ele><time>2026-04-02T07:36:53Z</time></trkpt><trkpt lat="43.290683442947916" lon="2.253942192838096"><ele>210.33333333333334</ele><time>2026-04-02T07:36:54Z</time></trkpt><trkpt lat="43.290850377516456" lon="2.2537688816044508"><ele>212.0</ele><time>2026-04-02T07:36:55Z</time></trkpt><trkpt lat="43.29102620385338" lon="2.2536088798631986"><ele>212.0</ele><time>2026-04-02T07:36:56Z</time></trkpt><trkpt lat="43.29122645015464" lon="2.253468068471676"><ele>212.0</ele><time>2026-04-02T07:36:57Z</time></trkpt><trkpt lat="43.29143493642507" lon="2.253332648056048"><ele>213.33333333333334</ele><time>2026-04-02T07:36:58Z</time></trkpt><trkpt lat="43.29163397771909" lon="2.2531848444681652"><ele>214.66666666666669</ele><time>2026-04-02T07:36:59Z</time></trkpt><trkpt lat="43.29183576235488" lon="2.253061236785856"><ele>216.0</ele><time>2026-04-02T07:37:00Z</time></trkpt><trkpt lat="43.29203030235455" lon="2.252936414049093"><ele>216.0</ele><time>2026-04-02T07:37:01Z</time></trkpt><trkpt lat="43.29221952914037" lon="2.2528100174773926"><ele>216.0</ele><time>2026-04-02T07:37:02Z</time></trkpt><trkpt lat="43.292410747789454" lon="2.2526866460971586"><ele>216.0</ele><time>2026-04-02T07:37:03Z</time></trkpt><trkpt lat="43.29260728634647" lon="2.2525539867644557"><ele>218.33333333333331</ele><time>2026-04-02T07:37:04Z</time></trkpt><trkpt lat="43.292793479407216" lon="2.2523998570886055"><ele>220.66666666666666</ele><time>2026-04-02T07:37:05Z</time></trkpt><trkpt lat="43.29296873329217" lon="2.2522247485671887"><ele>223.0</ele><time>2026-04-02T07:37:06Z</time></trkpt><trkpt lat="43.29313321463413" lon="2.2520355851521594"><ele>224.33333333333331</ele><time>2026-04-02T07:37:07Z</time></trkpt><trkpt lat="43.29329293236242" lon="2.25184697151133"><ele>225.66666666666669</ele><time>2026-04-02T07:37:08Z</time></trkpt><trkpt lat="43.29345194968567" lon="2.2516711287206572"><ele>227.0</ele><time>2026-04-02T07:37:09Z</time></trkpt><trkpt lat="43.29360954309312" lon="2.251496147375471"><ele>227.33333333333334</ele><time>2026-04-02T07:37:10Z</time></trkpt><trkpt lat="43.29378864688136" lon="2.251371631086037"><ele>227.66666666666669</ele><time>2026-04-02T07:37:11Z</time></trkpt><trkpt lat="43.293981452515304" lon="2.251244399990658"><ele>228.0</ele><time>2026-04-02T07:37:12Z</time></trkpt><trkpt lat="43.2941830779648" lon="2.251098690853392"><ele>230.0</ele><time>2026-04-02T07:37:13Z</time></trkpt><trkpt lat="43.29439533577126" lon="2.2509687015395494"><ele>232.0</ele><time>2026-04-02T07:37:14Z</time></trkpt><trkpt lat="43.2946106332139" lon="2.250836609092349"><ele>234.0</ele><time>2026-04-02T07:37:15Z</time></trkpt><trkpt lat="43.29481727908647" lon="2.250706013199187"><ele>236.0</ele><time>2026-04-02T07:37:16Z</time></trkpt><trkpt lat="43.29501963380876" lon="2.250576854191409"><ele>236.5</ele><time>2026-04-02T07:37:17Z</time></trkpt><trkpt lat="43.295232327818425" lon="2.250449041125711"><ele>237.0</ele><time>2026-04-02T07:37:18Z</time></trkpt><trkpt lat="43.29545341795706" lon="2.250353889681546"><ele>239.0</ele><time>2026-04-02T07:37:19Z</time></trkpt><trkpt lat="43.29566900445899" lon="2.250219321644929"><ele>241.0</ele><time>2026-04-02T07:37:20Z</time></trkpt><trkpt lat="43.29588581967415" lon="2.2501033496651233"><ele>241.0</ele><time>2026-04-02T07:37:21Z</time></trkpt><trkpt lat="43.29609525943716" lon="2.249968966574599"><ele>241.0</ele><time>2026-04-02T07:37:22Z</time></trkpt><trkpt lat="43.29629575192801" lon="2.24981686476634"><ele>242.5</ele><time>2026-04-02T07:37:23Z</time></trkpt><trkpt lat="43.296498145861364" lon="2.2496786913763307"><ele>244.0</ele><time>2026-04-02T07:37:24Z</time></trkpt><trkpt lat="43.29668170436609" lon="2.2494952277882634"><ele>244.0</ele><time>2026-04-02T07:37:25Z</time></trkpt><trkpt lat="43.296864227658055" lon="2.249329553905643"><ele>244.0</ele><time>2026-04-02T07:37:26Z</time></trkpt><trkpt lat="43.297041835367885" lon="2.2491621475594985"><ele>244.0</ele><time>2026-04-02T07:37:27Z</time></trkpt><trkpt lat="43.29721447809512" lon="2.2489955843159684"><ele>244.66666666666666</ele><time>2026-04-02T07:37:28Z</time></trkpt><trkpt lat="43.29739086973231" lon="2.248831347507057"><ele>245.33333333333331</ele><time>2026-04-02T07:37:29Z</time></trkpt><trkpt lat="43.29757600151517" lon="2.2486665611868712"><ele>246.0</ele><time>2026-04-02T07:37:30Z</time></trkpt><trkpt lat="43.29777834180864" lon="2.248534448292227"><ele>246.0</ele><time>2026-04-02T07:37:31Z</time></trkpt><trkpt lat="43.297988713268715" lon="2.248442039600611"><ele>246.0</ele><time>2026-04-02T07:37:32Z</time></trkpt><trkpt lat="43.29820929843462" lon="2.248390194962203"><ele>246.0</ele><time>2026-04-02T07:37:33Z</time></trkpt><trkpt lat="43.298433178456435" lon="2.24835408105579"><ele>247.0</ele><time>2026-04-02T07:37:34Z</time></trkpt><trkpt lat="43.298651112634694" lon="2.2483152033454354"><ele>248.0</ele><time>2026-04-02T07:37:35Z</time></trkpt><trkpt lat="43.298875685277" lon="2.248296389131844"><ele>249.0</ele><time>2026-04-02T07:37:36Z</time></trkpt><trkpt lat="43.29909993478428" lon="2.2482560139221905"><ele>250.66666666666669</ele><time>2026-04-02T07:37:37Z</time></trkpt><trkpt lat="43.29931599747048" lon="2.2482151333695883"><ele>252.33333333333334</ele><time>2026-04-02T07:37:38Z</time></trkpt><trkpt lat="43.29953528059138" lon="2.2481718705861584"><ele>254.0</ele><time>2026-04-02T07:37:39Z</time></trkpt><trkpt lat="43.29975155222808" lon="2.2481022348564994"><ele>254.66666666666669</ele><time>2026-04-02T07:37:40Z</time></trkpt><trkpt lat="43.2999501738697" lon="2.247994093527775"><ele>255.33333333333331</ele><time>2026-04-02T07:37:41Z</time></trkpt><trkpt lat="43.30013175373573" lon="2.2478628900755524"><ele>256.0</ele><time>2026-04-02T07:37:42Z</time></trkpt><trkpt lat="43.300306637825564" lon="2.2477720146890143"><ele>256.0</ele><time>2026-04-02T07:37:43Z</time></trkpt><trkpt lat="43.30046480200571" lon="2.2476626841987906"><ele>256.0</ele><time>2026-04-02T07:37:44Z</time></trkpt><trkpt lat="43.30064058997313" lon="2.247602740841495"><ele>256.0</ele><time>2026-04-02T07:37:45Z</time></trkpt><trkpt lat="43.30083909719954" lon="2.247597580816519"><ele>256.3333333333333</ele><time>2026-04-02T07:37:46Z</time></trkpt><trkpt lat="43.30104862886378" lon="2.2476409051739745"><ele>256.6666666666667</ele><time>2026-04-02T07:37:47Z</time></trkpt><trkpt lat="43.301263651276415" lon="2.247760137391537"><ele>257.0</ele><time>2026-04-02T07:37:48Z</time></trkpt><trkpt lat="43.30148913598526" lon="2.2478400244443586"><ele>257.0</ele><time>2026-04-02T07:37:49Z</time></trkpt><trkpt lat="43.30171806095139" lon="2.24790387823249"><ele>257.0</ele><time>2026-04-02T07:37:50Z</time></trkpt><trkpt lat="43.30194239637947" lon="2.2479687033140654"><ele>257.0</ele><time>2026-04-02T07:37:51Z</time></trkpt><trkpt lat="43.30215836158675" lon="2.2480364732550053"><ele>257.0</ele><time>2026-04-02T07:37:52Z</time></trkpt><trkpt lat="43.302376838732535" lon="2.2481030533236606"><ele>257.0</ele><time>2026-04-02T07:37:53Z</time></trkpt><trkpt lat="43.30259718155423" lon="2.2481709014555076"><ele>258.0</ele><time>2026-04-02T07:37:54Z</time></trkpt><trkpt lat="43.302799986333255" lon="2.2482373255078576"><ele>259.0</ele><time>2026-04-02T07:37:55Z</time></trkpt><trkpt lat="43.302987205203806" lon="2.2483018674968727"><ele>260.0</ele><time>2026-04-02T07:37:56Z</time></trkpt><trkpt lat="43.30317727951309" lon="2.2483653784743143"><ele>262.33333333333337</ele><time>2026-04-02T07:37:57Z</time></trkpt><trkpt lat="43.30337048031053" lon="2.248424505738849"><ele>264.6666666666667</ele><time>2026-04-02T07:37:58Z</time></trkpt><trkpt lat="43.30356097876242" lon="2.248486568190119"><ele>267.0</ele><time>2026-04-02T07:37:59Z</time></trkpt><trkpt lat="43.30375606672093" lon="2.24854871200654"><ele>268.0</ele><time>2026-04-02T07:38:00Z</time></trkpt><trkpt lat="43.30394008925445" lon="2.2486045852218415"><ele>269.0</ele><time>2026-04-02T07:38:01Z</time></trkpt><trkpt lat="43.304124810367924" lon="2.2486564861350598"><ele>270.0</ele><time>2026-04-02T07:38:02Z</time></trkpt><trkpt lat="43.30429976123367" lon="2.248711821089688"><ele>270.0</ele><time>2026-04-02T07:38:03Z</time></trkpt><trkpt lat="43.304471199044784" lon="2.248738145750259"><ele>270.0</ele><time>2026-04-02T07:38:04Z</time></trkpt><trkpt lat="43.3046395569845" lon="2.248724220623156"><ele>270.0</ele><time>2026-04-02T07:38:05Z</time></trkpt><trkpt lat="43.30480795572608" lon="2.2486889077470154"><ele>271.0</ele><time>2026-04-02T07:38:06Z</time></trkpt><trkpt lat="43.30497523283104" lon="2.248649178522587"><ele>272.0</ele><time>2026-04-02T07:38:07Z</time></trkpt><trkpt lat="43.30514888905737" lon="2.2486268215275795"><ele>273.0</ele><time>2026-04-02T07:38:08Z</time></trkpt><trkpt lat="43.3053262826807" lon="2.2486295550600155"><ele>273.0</ele><time>2026-04-02T07:38:09Z</time></trkpt><trkpt lat="43.30549865213579" lon="2.248658640997247"><ele>273.0</ele><time>2026-04-02T07:38:10Z</time></trkpt><trkpt lat="43.305645395912165" lon="2.248682551328805"><ele>273.0</ele><time>2026-04-02T07:38:11Z</time></trkpt><trkpt lat="43.305780161581886" lon="2.248710857567674"><ele>273.4</ele><time>2026-04-02T07:38:12Z</time></trkpt><trkpt lat="43.305903108996574" lon="2.248739088137535"><ele>273.8</ele><time>2026-04-02T07:38:13Z</time></trkpt><trkpt lat="43.306014685445284" lon="2.2487665501559286"><ele>274.2</ele><time>2026-04-02T07:38:14Z</time></trkpt><trkpt lat="43.30611719251515" lon="2.248784818107489"><ele>274.6</ele><time>2026-04-02T07:38:15Z</time></trkpt><trkpt lat="43.306210590345835" lon="2.2488002592609475"><ele>275.0</ele><time>2026-04-02T07:38:16Z</time></trkpt><trkpt lat="43.30629274950327" lon="2.2488159087169333"><ele>275.0</ele><time>2026-04-02T07:38:17Z</time></trkpt><trkpt lat="43.30636347982267" lon="2.2488296008293847"><ele>275.0</ele><time>2026-04-02T07:38:18Z</time></trkpt><trkpt lat="43.3064303102141" lon="2.24884196582717"><ele>275.0</ele><time>2026-04-02T07:38:19Z</time></trkpt><trkpt lat="43.30649615945422" lon="2.248856074208779"><ele>275.0</ele><time>2026-04-02T07:38:20Z</time></trkpt><trkpt lat="43.3065627139082" lon="2.2488672575484343"><ele>275.0</ele><time>2026-04-02T07:38:21Z</time></trkpt><trkpt lat="43.306654416017565" lon="2.248875731211117"><ele>275.0</ele><time>2026-04-02T07:38:22Z</time></trkpt><trkpt lat="43.306790574465175" lon="2.2489030942444845"><ele>275.75</ele><time>2026-04-02T07:38:23Z</time></trkpt><trkpt lat="43.30692035938964" lon="2.2489261426635085"><ele>276.5</ele><time>2026-04-02T07:38:24Z</time></trkpt><trkpt lat="43.30705540248021" lon="2.248938177351888"><ele>277.25</ele><time>2026-04-02T07:38:25Z</time></trkpt><trkpt lat="43.307199046960974" lon="2.248946225218505"><ele>278.0</ele><time>2026-04-02T07:38:26Z</time></trkpt><trkpt lat="43.307346978906864" lon="2.248949993235867"><ele>279.33333333333337</ele><time>2026-04-02T07:38:27Z</time></trkpt><trkpt lat="43.3074972825416" lon="2.2489482106580687"><ele>280.6666666666667</ele><time>2026-04-02T07:38:28Z</time></trkpt><trkpt lat="43.307662295641215" lon="2.2489423203814685"><ele>282.0</ele><time>2026-04-02T07:38:29Z</time></trkpt><trkpt lat="43.307830000215745" lon="2.2489355853110546"><ele>282.0</ele><time>2026-04-02T07:38:30Z</time></trkpt><trkpt lat="43.307986235648265" lon="2.2489366457229365"><ele>282.0</ele><time>2026-04-02T07:38:31Z</time></trkpt><trkpt lat="43.30814740894072" lon="2.2489500287845794"><ele>282.0</ele><time>2026-04-02T07:38:32Z</time></trkpt><trkpt lat="43.30831129774551" lon="2.248966253435961"><ele>283.3333333333333</ele><time>2026-04-02T07:38:33Z</time></trkpt><trkpt lat="43.30847811027832" lon="2.248993152051789"><ele>284.66666666666663</ele><time>2026-04-02T07:38:34Z</time></trkpt><trkpt lat="43.308642825924316" lon="2.2490230066417296"><ele>286.0</ele><time>2026-04-02T07:38:35Z</time></trkpt><trkpt lat="43.308812637119416" lon="2.249052381900184"><ele>287.66666666666663</ele><time>2026-04-02T07:38:36Z</time></trkpt><trkpt lat="43.30899225485627" lon="2.2490788550158216"><ele>289.3333333333333</ele><time>2026-04-02T07:38:37Z</time></trkpt><trkpt lat="43.30917818628526" lon="2.249111802722612"><ele>291.0</ele><time>2026-04-02T07:38:38Z</time></trkpt><trkpt lat="43.309365696361" lon="2.249153266365709"><ele>291.0</ele><time>2026-04-02T07:38:39Z</time></trkpt><trkpt lat="43.30955757248947" lon="2.249191232931253"><ele>291.0</ele><time>2026-04-02T07:38:40Z</time></trkpt><trkpt lat="43.30975554823157" lon="2.2492213629130644"><ele>291.0</ele><time>2026-04-02T07:38:41Z</time></trkpt><trkpt lat="43.30997250838696" lon="2.249254172346008"><ele>292.6666666666667</ele><time>2026-04-02T07:38:42Z</time></trkpt><trkpt lat="43.310189369164746" lon="2.249293343628846"><ele>294.33333333333337</ele><time>2026-04-02T07:38:43Z</time></trkpt><trkpt lat="43.31039361790336" lon="2.249332882178584"><ele>296.0</ele><time>2026-04-02T07:38:44Z</time></trkpt><trkpt lat="43.31059985512006" lon="2.24936374505982"><ele>298.0</ele><time>2026-04-02T07:38:45Z</time></trkpt><trkpt lat="43.31082326857383" lon="2.2493612437033597"><ele>300.0</ele><time>2026-04-02T07:38:46Z</time></trkpt><trkpt lat="43.311054627261626" lon="2.249327141131979"><ele>300.0</ele><time>2026-04-02T07:38:47Z</time></trkpt><trkpt lat="43.311283402167675" lon="2.2492841635837584"><ele>300.0</ele><time>2026-04-02T07:38:48Z</time></trkpt><trkpt lat="43.31151280456279" lon="2.249250006205901"><ele>302.0</ele><time>2026-04-02T07:38:49Z</time></trkpt><trkpt lat="43.31173004020139" lon="2.2492239419261812"><ele>304.0</ele><time>2026-04-02T07:38:50Z</time></trkpt><trkpt lat="43.31193121095461" lon="2.2491947371555536"><ele>306.0</ele><time>2026-04-02T07:38:51Z</time></trkpt><trkpt lat="43.31210092273676" lon="2.2491723548458045"><ele>306.75</ele><time>2026-04-02T07:38:52Z</time></trkpt><trkpt lat="43.31225269259367" lon="2.249192370088801"><ele>307.5</ele><time>2026-04-02T07:38:53Z</time></trkpt><trkpt lat="43.31236098169838" lon="2.2493156350755292"><ele>308.25</ele><time>2026-04-02T07:38:54Z</time></trkpt><trkpt lat="43.31241134370373" lon="2.2494638464370036"><ele>309.0</ele><time>2026-04-02T07:38:55Z</time></trkpt><trkpt lat="43.31241841739257" lon="2.2496435994281874"><ele>309.6666666666667</ele><time>2026-04-02T07:38:56Z</time></trkpt><trkpt lat="43.312444868340194" lon="2.2498732277161557"><ele>310.33333333333337</ele><time>2026-04-02T07:38:57Z</time></trkpt><trkpt lat="43.31243755337441" lon="2.250142005329239"><ele>311.0</ele><time>2026-04-02T07:38:58Z</time></trkpt><trkpt lat="43.312458170172114" lon="2.2504333600116335"><ele>311.33333333333337</ele><time>2026-04-02T07:38:59Z</time></trkpt><trkpt lat="43.312484134100735" lon="2.2507340242880627"><ele>311.6666666666667</ele><time>2026-04-02T07:39:00Z</time></trkpt><trkpt lat="43.31250682062171" lon="2.2510042145214184"><ele>312.0</ele><time>2026-04-02T07:39:01Z</time></trkpt><trkpt lat="43.31253398361019" lon="2.2512480816986304"><ele>311.75</ele><time>2026-04-02T07:39:02Z</time></trkpt><trkpt lat="43.31256864422294" lon="2.251474549309632"><ele>311.5</ele><time>2026-04-02T07:39:03Z</time></trkpt><trkpt lat="43.31262675045399" lon="2.2516503635113243"><ele>311.25</ele><time>2026-04-02T07:39:04Z</time></trkpt><trkpt lat="43.31271968071793" lon="2.2517660437754503"><ele>311.0</ele><time>2026-04-02T07:39:05Z</time></trkpt><trkpt lat="43.312842965423414" lon="2.251820920858558"><ele>311.0</ele><time>2026-04-02T07:39:06Z</time></trkpt><trkpt lat="43.31297427253929" lon="2.251796639109736"><ele>311.0</ele><time>2026-04-02T07:39:07Z</time></trkpt><trkpt lat="43.31310722478239" lon="2.2516988257474364"><ele>311.0</ele><time>2026-04-02T07:39:08Z</time></trkpt><trkpt lat="43.31324552664046" lon="2.2515589006367827"><ele>311.0</ele><time>2026-04-02T07:39:09Z</time></trkpt><trkpt lat="43.31340784777805" lon="2.2514027518645583"><ele>311.0</ele><time>2026-04-02T07:39:10Z</time></trkpt><trkpt lat="43.31357735709609" lon="2.251241329606552"><ele>311.0</ele><time>2026-04-02T07:39:11Z</time></trkpt><trkpt lat="43.313744197711316" lon="2.251083233955181"><ele>310.0</ele><time>2026-04-02T07:39:12Z</time></trkpt><trkpt lat="43.31391194438298" lon="2.2509011148482463"><ele>309.0</ele><time>2026-04-02T07:39:13Z</time></trkpt><trkpt lat="43.31406826035624" lon="2.2506840302531326"><ele>308.0</ele><time>2026-04-02T07:39:14Z</time></trkpt><trkpt lat="43.31421288950092" lon="2.2504878757656486"><ele>308.0</ele><time>2026-04-02T07:39:15Z</time></trkpt><trkpt lat="43.314353870149375" lon="2.2503137012443215"><ele>308.0</ele><time>2026-04-02T07:39:16Z</time></trkpt><trkpt lat="43.31448275041521" lon="2.2501664562113537"><ele>308.0</ele><time>2026-04-02T07:39:17Z</time></trkpt><trkpt lat="43.3146109852607" lon="2.250041332317321"><ele>308.0</ele><time>2026-04-02T07:39:18Z</time></trkpt><trkpt lat="43.31472301529039" lon="2.2499657648544473"><ele>308.0</ele><time>2026-04-02T07:39:19Z</time></trkpt><trkpt lat="43.3148277487189" lon="2.250010930898545"><ele>308.0</ele><time>2026-04-02T07:39:20Z</time></trkpt><trkpt lat="43.31491558140087" lon="2.2500867938811573"><ele>308.0</ele><time>2026-04-02T07:39:21Z</time></trkpt><trkpt lat="43.314990593963564" lon="2.2502410704853846"><ele>306.6666666666667</ele><time>2026-04-02T07:39:22Z</time></trkpt><trkpt lat="43.31509451630811" lon="2.250424987711646"><ele>305.3333333333333</ele><time>2026-04-02T07:39:23Z</time></trkpt><trkpt lat="43.3151917023629" lon="2.2506169275963126"><ele>304.0</ele><time>2026-04-02T07:39:24Z</time></trkpt><trkpt lat="43.315334812021185" lon="2.2507615164752677"><ele>304.0</ele><time>2026-04-02T07:39:25Z</time></trkpt><trkpt lat="43.31551386793193" lon="2.250871022000924"><ele>304.0</ele><time>2026-04-02T07:39:26Z</time></trkpt><trkpt lat="43.31568623907287" lon="2.250988007158315"><ele>304.0</ele><time>2026-04-02T07:39:27Z</time></trkpt><trkpt lat="43.31583727507119" lon="2.2511091588985113"><ele>304.0</ele><time>2026-04-02T07:39:28Z</time></trkpt><trkpt lat="43.31598001386968" lon="2.2512297592926735"><ele>304.0</ele><time>2026-04-02T07:39:29Z</time></trkpt><trkpt lat="43.31611864026699" lon="2.251315502066215"><ele>304.0</ele><time>2026-04-02T07:39:30Z</time></trkpt><trkpt lat="43.316280614515556" lon="2.251358713294428"><ele>303.0</ele><time>2026-04-02T07:39:31Z</time></trkpt><trkpt lat="43.31644634801307" lon="2.2513202159902006"><ele>302.0</ele><time>2026-04-02T07:39:32Z</time></trkpt><trkpt lat="43.316608210304175" lon="2.2512119057795497"><ele>301.0</ele><time>2026-04-02T07:39:33Z</time></trkpt><trkpt lat="43.31677030936811" lon="2.251151548998761"><ele>301.0</ele><time>2026-04-02T07:39:34Z</time></trkpt><trkpt lat="43.31693325623819" lon="2.2511216007128922"><ele>301.0</ele><time>2026-04-02T07:39:35Z</time></trkpt><trkpt lat="43.31709864772023" lon="2.251120889960216"><ele>301.0</ele><time>2026-04-02T07:39:36Z</time></trkpt><trkpt lat="43.31727168612521" lon="2.251117226516204"><ele>301.0</ele><time>2026-04-02T07:39:37Z</time></trkpt><trkpt lat="43.317463643236856" lon="2.2511540357422537"><ele>301.0</ele><time>2026-04-02T07:39:38Z</time></trkpt><trkpt lat="43.31765305244857" lon="2.2511997575259293"><ele>301.0</ele><time>2026-04-02T07:39:39Z</time></trkpt><trkpt lat="43.3178426319606" lon="2.251246568409499"><ele>301.0</ele><time>2026-04-02T07:39:40Z</time></trkpt><trkpt lat="43.31803995129041" lon="2.2512956504556945"><ele>301.0</ele><time>2026-04-02T07:39:41Z</time></trkpt><trkpt lat="43.31825567196326" lon="2.2513503985608363"><ele>301.0</ele><time>2026-04-02T07:39:42Z</time></trkpt><trkpt lat="43.31848155856136" lon="2.2514053528022586"><ele>301.66666666666663</ele><time>2026-04-02T07:39:43Z</time></trkpt><trkpt lat="43.318710332408514" lon="2.2514571218462907"><ele>302.3333333333333</ele><time>2026-04-02T07:39:44Z</time></trkpt><trkpt lat="43.31892362185565" lon="2.251503216560848"><ele>303.0</ele><time>2026-04-02T07:39:45Z</time></trkpt><trkpt lat="43.31914297569207" lon="2.251549593995764"><ele>304.0</ele><time>2026-04-02T07:39:46Z</time></trkpt><trkpt lat="43.31935578791064" lon="2.2515740237763966"><ele>305.0</ele><time>2026-04-02T07:39:47Z</time></trkpt><trkpt lat="43.31955402592587" lon="2.251566012305934"><ele>306.0</ele><time>2026-04-02T07:39:48Z</time></trkpt><trkpt lat="43.31974374872337" lon="2.251515898676023"><ele>307.3333333333333</ele><time>2026-04-02T07:39:49Z</time></trkpt><trkpt lat="43.31991375583567" lon="2.2514195254464866"><ele>308.66666666666663</ele><time>2026-04-02T07:39:50Z</time></trkpt><trkpt lat="43.320066335673225" lon="2.251293301637671"><ele>310.0</ele><time>2026-04-02T07:39:51Z</time></trkpt><trkpt lat="43.32021174884276" lon="2.251142118292079"><ele>310.0</ele><time>2026-04-02T07:39:52Z</time></trkpt><trkpt lat="43.32033690914646" lon="2.251000642833087"><ele>310.0</ele><time>2026-04-02T07:39:53Z</time></trkpt><trkpt lat="43.32046112004773" lon="2.250921437062144"><ele>310.0</ele><time>2026-04-02T07:39:54Z</time></trkpt><trkpt lat="43.32056439294829" lon="2.250811196172861"><ele>310.0</ele><time>2026-04-02T07:39:55Z</time></trkpt><trkpt lat="43.320711215360134" lon="2.251019732746127"><ele>311.3333333333333</ele><time>2026-04-02T07:39:56Z</time></trkpt><trkpt lat="43.32082775877515" lon="2.25118550966372"><ele>312.6666666666667</ele><time>2026-04-02T07:39:57Z</time></trkpt><trkpt lat="43.320933281363644" lon="2.2513912010977264"><ele>314.0</ele><time>2026-04-02T07:39:58Z</time></trkpt><trkpt lat="43.32104402769808" lon="2.251609863665868"><ele>314.0</ele><time>2026-04-02T07:39:59Z</time></trkpt><trkpt lat="43.32115803204347" lon="2.2518229754932357"><ele>314.0</ele><time>2026-04-02T07:40:00Z</time></trkpt><trkpt lat="43.32127653408423" lon="2.2520569926469145"><ele>314.0</ele><time>2026-04-02T07:40:01Z</time></trkpt><trkpt lat="43.32140796393393" lon="2.2523034388685286"><ele>317.0</ele><time>2026-04-02T07:40:02Z</time></trkpt><trkpt lat="43.32154247058214" lon="2.2525510795873513"><ele>320.0</ele><time>2026-04-02T07:40:03Z</time></trkpt><trkpt lat="43.32168584014516" lon="2.2528011500547906"><ele>320.0</ele><time>2026-04-02T07:40:04Z</time></trkpt><trkpt lat="43.32183323393491" lon="2.2530257776037255"><ele>320.0</ele><time>2026-04-02T07:40:05Z</time></trkpt><trkpt lat="43.321983153845544" lon="2.253234704044568"><ele>320.0</ele><time>2026-04-02T07:40:06Z</time></trkpt><trkpt lat="43.322126191991835" lon="2.2534357350962977"><ele>322.0</ele><time>2026-04-02T07:40:07Z</time></trkpt><trkpt lat="43.32225599256518" lon="2.253620246532365"><ele>324.0</ele><time>2026-04-02T07:40:08Z</time></trkpt><trkpt lat="43.32238221704712" lon="2.253795512901853"><ele>326.0</ele><time>2026-04-02T07:40:09Z</time></trkpt><trkpt lat="43.32249601288083" lon="2.2539507715355063"><ele>326.0</ele><time>2026-04-02T07:40:10Z</time></trkpt><trkpt lat="43.32261464222616" lon="2.2540884896045754"><ele>326.0</ele><time>2026-04-02T07:40:11Z</time></trkpt><trkpt lat="43.3227583668612" lon="2.2541796731160177"><ele>326.0</ele><time>2026-04-02T07:40:12Z</time></trkpt><trkpt lat="43.32293647327812" lon="2.2542083338923926"><ele>327.6666666666667</ele><time>2026-04-02T07:40:13Z</time></trkpt><trkpt lat="43.32313293183006" lon="2.254200888147668"><ele>329.3333333333333</ele><time>2026-04-02T07:40:14Z</time></trkpt><trkpt lat="43.3233199638384" lon="2.2542010498097644"><ele>331.0</ele><time>2026-04-02T07:40:15Z</time></trkpt><trkpt lat="43.323497935530526" lon="2.2541949448411382"><ele>331.0</ele><time>2026-04-02T07:40:16Z</time></trkpt><trkpt lat="43.32368347357855" lon="2.2541344057687547"><ele>331.0</ele><time>2026-04-02T07:40:17Z</time></trkpt><trkpt lat="43.32386734243175" lon="2.2540096051653276"><ele>331.0</ele><time>2026-04-02T07:40:18Z</time></trkpt><trkpt lat="43.32404429823689" lon="2.2538462446653877"><ele>333.3333333333333</ele><time>2026-04-02T07:40:19Z</time></trkpt><trkpt lat="43.324223352618674" lon="2.253675645379406"><ele>335.6666666666667</ele><time>2026-04-02T07:40:20Z</time></trkpt><trkpt lat="43.3244054588313" lon="2.2535093255670433"><ele>338.0</ele><time>2026-04-02T07:40:21Z</time></trkpt><trkpt lat="43.32457569160198" lon="2.2533245046622343"><ele>339.0</ele><time>2026-04-02T07:40:22Z</time></trkpt><trkpt lat="43.324734475736584" lon="2.2531121051283174"><ele>340.0</ele><time>2026-04-02T07:40:23Z</time></trkpt><trkpt lat="43.32487923190459" lon="2.2528833002153896"><ele>341.0</ele><time>2026-04-02T07:40:24Z</time></trkpt><trkpt lat="43.325020584093934" lon="2.252646529327299"><ele>341.0</ele><time>2026-04-02T07:40:25Z</time></trkpt><trkpt lat="43.32515466330955" lon="2.2524111194880927"><ele>341.0</ele><time>2026-04-02T07:40:26Z</time></trkpt><trkpt lat="43.325285329408814" lon="2.252164257059505"><ele>341.0</ele><time>2026-04-02T07:40:27Z</time></trkpt><trkpt lat="43.32541270509639" lon="2.2519186451020503"><ele>341.0</ele><time>2026-04-02T07:40:28Z</time></trkpt><trkpt lat="43.325542406183196" lon="2.2516764431589102"><ele>341.0</ele><time>2026-04-02T07:40:29Z</time></trkpt><trkpt lat="43.325674071464256" lon="2.251433914130458"><ele>341.0</ele><time>2026-04-02T07:40:30Z</time></trkpt><trkpt lat="43.32580326984701" lon="2.251195728929299"><ele>343.0</ele><time>2026-04-02T07:40:31Z</time></trkpt><trkpt lat="43.32593410983817" lon="2.2509509798453826"><ele>345.0</ele><time>2026-04-02T07:40:32Z</time></trkpt><trkpt lat="43.32607611324427" lon="2.2506907034599277"><ele>345.0</ele><time>2026-04-02T07:40:33Z</time></trkpt><trkpt lat="43.32621726621962" lon="2.250434752813951"><ele>345.0</ele><time>2026-04-02T07:40:34Z</time></trkpt><trkpt lat="43.32635845638897" lon="2.250180891611702"><ele>348.0</ele><time>2026-04-02T07:40:35Z</time></trkpt><trkpt lat="43.326498119876376" lon="2.2499326572987375"><ele>351.0</ele><time>2026-04-02T07:40:36Z</time></trkpt><trkpt lat="43.32664474634672" lon="2.249701590591458"><ele>351.5</ele><time>2026-04-02T07:40:37Z</time></trkpt><trkpt lat="43.32683928740176" lon="2.2495229296788435"><ele>352.0</ele><time>2026-04-02T07:40:38Z</time></trkpt><trkpt lat="43.327036793338756" lon="2.249375890580675"><ele>353.0</ele><time>2026-04-02T07:40:39Z</time></trkpt><trkpt lat="43.327256651867565" lon="2.249244623081896"><ele>354.0</ele><time>2026-04-02T07:40:40Z</time></trkpt><trkpt lat="43.32747775354077" lon="2.249124263334955"><ele>354.0</ele><time>2026-04-02T07:40:41Z</time></trkpt><trkpt lat="43.32767995368613" lon="2.2490234688934705"><ele>354.0</ele><time>2026-04-02T07:40:42Z</time></trkpt><trkpt lat="43.32785954069551" lon="2.248993791119836"><ele>354.0</ele><time>2026-04-02T07:40:43Z</time></trkpt><trkpt lat="43.328008105948186" lon="2.2490243306610136"><ele>355.6666666666667</ele><time>2026-04-02T07:40:44Z</time></trkpt><trkpt lat="43.32812405094329" lon="2.2491350458330372"><ele>357.33333333333337</ele><time>2026-04-02T07:40:45Z</time></trkpt><trkpt lat="43.3282149274765" lon="2.2493084926115636"><ele>359.0</ele><time>2026-04-02T07:40:46Z</time></trkpt><trkpt lat="43.32829617617001" lon="2.249527578511837"><ele>359.0</ele><time>2026-04-02T07:40:47Z</time></trkpt><trkpt lat="43.32837597921807" lon="2.2497753955960076"><ele>359.0</ele><time>2026-04-02T07:40:48Z</time></trkpt><trkpt lat="43.328451559700575" lon="2.250043468567792"><ele>359.0</ele><time>2026-04-02T07:40:49Z</time></trkpt><trkpt lat="43.328568366969485" lon="2.250283539260658"><ele>358.6666666666667</ele><time>2026-04-02T07:40:50Z</time></trkpt><trkpt lat="43.32871307567764" lon="2.250488099346581"><ele>358.3333333333333</ele><time>2026-04-02T07:40:51Z</time></trkpt><trkpt lat="43.32887467288615" lon="2.2506489073236144"><ele>358.0</ele><time>2026-04-02T07:40:52Z</time></trkpt><trkpt lat="43.32905570672379" lon="2.2507672541357864"><ele>359.66666666666663</ele><time>2026-04-02T07:40:53Z</time></trkpt><trkpt lat="43.32923407958418" lon="2.250833863784232"><ele>361.3333333333333</ele><time>2026-04-02T07:40:54Z</time></trkpt><trkpt lat="43.32938713292326" lon="2.250880384483474"><ele>363.0</ele><time>2026-04-02T07:40:55Z</time></trkpt><trkpt lat="43.329510012469285" lon="2.2509631974996"><ele>363.0</ele><time>2026-04-02T07:40:56Z</time></trkpt><trkpt lat="43.329628299314265" lon="2.2510805969716468"><ele>363.0</ele><time>2026-04-02T07:40:57Z</time></trkpt><trkpt lat="43.32970617558774" lon="2.251281514361713"><ele>363.0</ele><time>2026-04-02T07:40:58Z</time></trkpt><trkpt lat="43.32981167498471" lon="2.2514981224898523"><ele>362.0</ele><time>2026-04-02T07:40:59Z</time></trkpt><trkpt lat="43.3298893080957" lon="2.251748132598722"><ele>361.0</ele><time>2026-04-02T07:41:00Z</time></trkpt><trkpt lat="43.32994859049837" lon="2.2519759775526595"><ele>360.0</ele><time>2026-04-02T07:41:01Z</time></trkpt><trkpt lat="43.330029169539216" lon="2.2521711152778114"><ele>359.5</ele><time>2026-04-02T07:41:02Z</time></trkpt><trkpt lat="43.33013550828893" lon="2.252318626481469"><ele>359.0</ele><time>2026-04-02T07:41:03Z</time></trkpt><trkpt lat="43.330264766540694" lon="2.2523957795861738"><ele>358.5</ele><time>2026-04-02T07:41:04Z</time></trkpt><trkpt lat="43.33041347261971" lon="2.252388457371868"><ele>358.0</ele><time>2026-04-02T07:41:05Z</time></trkpt><trkpt lat="43.33057432073953" lon="2.2523051577809095"><ele>357.3333333333333</ele><time>2026-04-02T07:41:06Z</time></trkpt><trkpt lat="43.330729864779464" lon="2.2521583523909565"><ele>356.6666666666667</ele><time>2026-04-02T07:41:07Z</time></trkpt><trkpt lat="43.33089176101478" lon="2.252040496668794"><ele>356.0</ele><time>2026-04-02T07:41:08Z</time></trkpt><trkpt lat="43.33108768070828" lon="2.252040326536003"><ele>356.0</ele><time>2026-04-02T07:41:09Z</time></trkpt><trkpt lat="43.33132204060301" lon="2.2520515395657816"><ele>356.0</ele><time>2026-04-02T07:41:10Z</time></trkpt><trkpt lat="43.33156264682439" lon="2.252077333253427"><ele>353.0</ele><time>2026-04-02T07:41:11Z</time></trkpt><trkpt lat="43.33179426659723" lon="2.252136633900582"><ele>350.0</ele><time>2026-04-02T07:41:12Z</time></trkpt><trkpt lat="43.33202798701301" lon="2.2522164349803546"><ele>350.5</ele><time>2026-04-02T07:41:13Z</time></trkpt><trkpt lat="43.33226179490808" lon="2.2523389766280704"><ele>351.0</ele><time>2026-04-02T07:41:14Z</time></trkpt><trkpt lat="43.33249901792191" lon="2.2525012291457602"><ele>351.0</ele><time>2026-04-02T07:41:15Z</time></trkpt><trkpt lat="43.33271734592897" lon="2.2526552011971477"><ele>351.0</ele><time>2026-04-02T07:41:16Z</time></trkpt><trkpt lat="43.33293523874894" lon="2.2527819798977067"><ele>352.6666666666667</ele><time>2026-04-02T07:41:17Z</time></trkpt><trkpt lat="43.3331387157455" lon="2.252875259808008"><ele>354.33333333333337</ele><time>2026-04-02T07:41:18Z</time></trkpt><trkpt lat="43.33334176800134" lon="2.2529523775316806"><ele>356.0</ele><time>2026-04-02T07:41:19Z</time></trkpt><trkpt lat="43.33354826973021" lon="2.253018502457103"><ele>356.0</ele><time>2026-04-02T07:41:20Z</time></trkpt><trkpt lat="43.333757667827264" lon="2.2530696934089507"><ele>356.0</ele><time>2026-04-02T07:41:21Z</time></trkpt><trkpt lat="43.3339676354892" lon="2.2530904383511796"><ele>356.0</ele><time>2026-04-02T07:41:22Z</time></trkpt><trkpt lat="43.33417939136233" lon="2.2530835484224068"><ele>357.33333333333337</ele><time>2026-04-02T07:41:23Z</time></trkpt><trkpt lat="43.33438940378009" lon="2.2530788386445657"><ele>358.6666666666667</ele><time>2026-04-02T07:41:24Z</time></trkpt><trkpt lat="43.33460144956791" lon="2.253070688189594"><ele>360.0</ele><time>2026-04-02T07:41:25Z</time></trkpt><trkpt lat="43.33481692263672" lon="2.2530570289152574"><ele>361.3333333333333</ele><time>2026-04-02T07:41:26Z</time></trkpt><trkpt lat="43.335038535073345" lon="2.2530612717519327"><ele>362.66666666666663</ele><time>2026-04-02T07:41:27Z</time></trkpt><trkpt lat="43.33525742776732" lon="2.253104370733656"><ele>364.0</ele><time>2026-04-02T07:41:28Z</time></trkpt><trkpt lat="43.33546567866005" lon="2.2531677352572377"><ele>365.66666666666663</ele><time>2026-04-02T07:41:29Z</time></trkpt><trkpt lat="43.33565072662567" lon="2.253233775115635"><ele>367.3333333333333</ele><time>2026-04-02T07:41:30Z</time></trkpt><trkpt lat="43.335831021549346" lon="2.2533285843639175"><ele>369.0</ele><time>2026-04-02T07:41:31Z</time></trkpt><trkpt lat="43.335986603811456" lon="2.2534774372372293"><ele>369.0</ele><time>2026-04-02T07:41:32Z</time></trkpt><trkpt lat="43.33610947985653" lon="2.2536453903583373"><ele>369.0</ele><time>2026-04-02T07:41:33Z</time></trkpt><trkpt lat="43.336202188440105" lon="2.2537899368432304"><ele>369.0</ele><time>2026-04-02T07:41:34Z</time></trkpt><trkpt lat="43.336274373413026" lon="2.2538923435467733"><ele>369.0</ele><time>2026-04-02T07:41:35Z</time></trkpt><trkpt lat="43.336330596694225" lon="2.2539372733697203"><ele>370.25</ele><time>2026-04-02T07:41:36Z</time></trkpt><trkpt lat="43.336406414993505" lon="2.2539182858834934"><ele>371.5</ele><time>2026-04-02T07:41:38Z</time></trkpt><trkpt lat="43.33651566942097" lon="2.2538675966555046"><ele>372.75</ele><time>2026-04-02T07:41:39Z</time></trkpt><trkpt lat="43.3366537953828" lon="2.2537875661218942"><ele>374.0</ele><time>2026-04-02T07:41:40Z</time></trkpt><trkpt lat="43.33681654767892" lon="2.253708372663949"><ele>374.0</ele><time>2026-04-02T07:41:41Z</time></trkpt><trkpt lat="43.33698881547961" lon="2.2536309086925543"><ele>374.0</ele><time>2026-04-02T07:41:42Z</time></trkpt><trkpt lat="43.33718185652865" lon="2.2535722589587084"><ele>374.0</ele><time>2026-04-02T07:41:43Z</time></trkpt><trkpt lat="43.337393541125984" lon="2.2535507570286692"><ele>377.0</ele><time>2026-04-02T07:41:44Z</time></trkpt><trkpt lat="43.3376181771873" lon="2.253542516066394"><ele>380.0</ele><time>2026-04-02T07:41:45Z</time></trkpt><trkpt lat="43.33785746275911" lon="2.253546382433394"><ele>381.5</ele><time>2026-04-02T07:41:46Z</time></trkpt><trkpt lat="43.33809585666409" lon="2.253552074492937"><ele>383.0</ele><time>2026-04-02T07:41:47Z</time></trkpt><trkpt lat="43.33833321477046" lon="2.2535532732498584"><ele>383.0</ele><time>2026-04-02T07:41:48Z</time></trkpt><trkpt lat="43.33857666997694" lon="2.2535470871458276"><ele>383.0</ele><time>2026-04-02T07:41:49Z</time></trkpt><trkpt lat="43.3388214657828" lon="2.253543663565088"><ele>383.5</ele><time>2026-04-02T07:41:50Z</time></trkpt><trkpt lat="43.339066722790804" lon="2.2535506460350603"><ele>384.0</ele><time>2026-04-02T07:41:51Z</time></trkpt><trkpt lat="43.33931127071427" lon="2.2535563285994975"><ele>384.0</ele><time>2026-04-02T07:41:52Z</time></trkpt><trkpt lat="43.33954351417611" lon="2.2535648743939367"><ele>384.0</ele><time>2026-04-02T07:41:53Z</time></trkpt><trkpt lat="43.339757746583544" lon="2.2535661672277003"><ele>384.0</ele><time>2026-04-02T07:41:54Z</time></trkpt><trkpt lat="43.339962946236376" lon="2.2535636538101174"><ele>385.33333333333337</ele><time>2026-04-02T07:41:55Z</time></trkpt><trkpt lat="43.34016157197869" lon="2.253562779612115"><ele>386.6666666666667</ele><time>2026-04-02T07:41:56Z</time></trkpt><trkpt lat="43.340362095738236" lon="2.2535630667512434"><ele>388.0</ele><time>2026-04-02T07:41:57Z</time></trkpt><trkpt lat="43.34055006101667" lon="2.2535640151387817"><ele>389.33333333333337</ele><time>2026-04-02T07:41:58Z</time></trkpt><trkpt lat="43.340721231151605" lon="2.2535672948621426"><ele>390.66666666666663</ele><time>2026-04-02T07:41:59Z</time></trkpt><trkpt lat="43.34087405465608" lon="2.2535751531613113"><ele>392.0</ele><time>2026-04-02T07:42:00Z</time></trkpt><trkpt lat="43.34102211689675" lon="2.253581402061356"><ele>392.0</ele><time>2026-04-02T07:42:01Z</time></trkpt><trkpt lat="43.3411811727551" lon="2.2535766205717085"><ele>392.0</ele><time>2026-04-02T07:42:02Z</time></trkpt><trkpt lat="43.34133694750786" lon="2.253578855488712"><ele>392.0</ele><time>2026-04-02T07:42:03Z</time></trkpt><trkpt lat="43.34147973155576" lon="2.2535746795447054"><ele>393.75</ele><time>2026-04-02T07:42:04Z</time></trkpt><trkpt lat="43.34161023584219" lon="2.253523199904527"><ele>395.5</ele><time>2026-04-02T07:42:05Z</time></trkpt><trkpt lat="43.341722952619364" lon="2.2534006876616766"><ele>397.25</ele><time>2026-04-02T07:42:06Z</time></trkpt><trkpt lat="43.34179639336199" lon="2.2532660679617886"><ele>399.0</ele><time>2026-04-02T07:42:07Z</time></trkpt><trkpt lat="43.341841669514885" lon="2.253173615484706"><ele>396.75</ele><time>2026-04-02T07:42:08Z</time></trkpt><trkpt lat="43.341864745308754" lon="2.2529813451365395"><ele>394.5</ele><time>2026-04-02T07:42:11Z</time></trkpt><trkpt lat="43.34184060553433" lon="2.2528157525449393"><ele>392.25</ele><time>2026-04-02T07:42:12Z</time></trkpt><trkpt lat="43.34184402266133" lon="2.2526526248246395"><ele>390.0</ele><time>2026-04-02T07:42:13Z</time></trkpt><trkpt lat="43.34187522882475" lon="2.2525194336521017"><ele>390.0</ele><time>2026-04-02T07:42:14Z</time></trkpt><trkpt lat="43.34195945100106" lon="2.252421323610173"><ele>390.0</ele><time>2026-04-02T07:42:15Z</time></trkpt><trkpt lat="43.34207376459151" lon="2.2523771806515387"><ele>390.0</ele><time>2026-04-02T07:42:16Z</time></trkpt><trkpt lat="43.34221286757214" lon="2.2523836883675434"><ele>390.0</ele><time>2026-04-02T07:42:17Z</time></trkpt><trkpt lat="43.342372236397665" lon="2.252403503217305"><ele>391.5</ele><time>2026-04-02T07:42:18Z</time></trkpt><trkpt lat="43.342531667639264" lon="2.2524004673628695"><ele>393.0</ele><time>2026-04-02T07:42:19Z</time></trkpt><trkpt lat="43.34267075079281" lon="2.2523897359476313"><ele>394.5</ele><time>2026-04-02T07:42:20Z</time></trkpt><trkpt lat="43.34279180558747" lon="2.2523683625079984"><ele>396.0</ele><time>2026-04-02T07:42:21Z</time></trkpt><trkpt lat="43.34289136928295" lon="2.2522949931607394"><ele>395.20000000000005</ele><time>2026-04-02T07:42:22Z</time></trkpt><trkpt lat="43.34296465490381" lon="2.2521813381538713"><ele>394.40000000000003</ele><time>2026-04-02T07:42:23Z</time></trkpt><trkpt lat="43.343019478531104" lon="2.2520550267214294"><ele>393.6</ele><time>2026-04-02T07:42:24Z</time></trkpt><trkpt lat="43.343069627423965" lon="2.2519437261556483"><ele>392.8</ele><time>2026-04-02T07:42:25Z</time></trkpt><trkpt lat="43.34308325055927" lon="2.2518309333389306"><ele>392.0</ele><time>2026-04-02T07:42:26Z</time></trkpt><trkpt lat="43.343035736950185" lon="2.251728855006824"><ele>392.0</ele><time>2026-04-02T07:42:27Z</time></trkpt><trkpt lat="43.34294013428535" lon="2.2516744042984245"><ele>392.0</ele><time>2026-04-02T07:42:28Z</time></trkpt><trkpt lat="43.34282781360181" lon="2.251597487675606"><ele>392.0</ele><time>2026-04-02T07:42:29Z</time></trkpt><trkpt lat="43.34269884432587" lon="2.2515076973930275"><ele>392.0</ele><time>2026-04-02T07:42:30Z</time></trkpt><trkpt lat="43.342580904024885" lon="2.2514245936664112"><ele>392.75</ele><time>2026-04-02T07:42:31Z</time></trkpt><trkpt lat="43.34246146270515" lon="2.2513404322392967"><ele>393.5</ele><time>2026-04-02T07:42:32Z</time></trkpt><trkpt lat="43.34233104036293" lon="2.2512485333247967"><ele>394.25</ele><time>2026-04-02T07:42:33Z</time></trkpt><trkpt lat="43.34221658789944" lon="2.2511613783791535"><ele>395.0</ele><time>2026-04-02T07:42:34Z</time></trkpt><trkpt lat="43.3421349431535" lon="2.251074929685782"><ele>395.0</ele><time>2026-04-02T07:42:35Z</time></trkpt><trkpt lat="43.34210469673129" lon="2.2509632511896007"><ele>395.0</ele><time>2026-04-02T07:42:36Z</time></trkpt><trkpt lat="43.342114475584125" lon="2.2508405794467987"><ele>395.0</ele><time>2026-04-02T07:42:37Z</time></trkpt><trkpt lat="43.34216787504371" lon="2.250709697019464"><ele>395.0</ele><time>2026-04-02T07:42:38Z</time></trkpt><trkpt lat="43.34222458093203" lon="2.2505429932581618"><ele>395.0</ele><time>2026-04-02T07:42:39Z</time></trkpt><trkpt lat="43.34230268355776" lon="2.250364708150392"><ele>397.3333333333333</ele><time>2026-04-02T07:42:40Z</time></trkpt><trkpt lat="43.34238341395148" lon="2.2501589882492548"><ele>399.66666666666663</ele><time>2026-04-02T07:42:41Z</time></trkpt><trkpt lat="43.342471601053504" lon="2.249938104653978"><ele>402.0</ele><time>2026-04-02T07:42:42Z</time></trkpt><trkpt lat="43.34256575734725" lon="2.2497045485917697"><ele>402.0</ele><time>2026-04-02T07:42:43Z</time></trkpt><trkpt lat="43.34265744231001" lon="2.2494559924767326"><ele>402.0</ele><time>2026-04-02T07:42:44Z</time></trkpt><trkpt lat="43.342746630954565" lon="2.249212053171597"><ele>402.0</ele><time>2026-04-02T07:42:45Z</time></trkpt><trkpt lat="43.34283728976511" lon="2.248962141127481"><ele>402.0</ele><time>2026-04-02T07:42:46Z</time></trkpt><trkpt lat="43.34293204654694" lon="2.24871137431973"><ele>402.0</ele><time>2026-04-02T07:42:47Z</time></trkpt><trkpt lat="43.343028145979986" lon="2.2484690142340775"><ele>402.0</ele><time>2026-04-02T07:42:48Z</time></trkpt><trkpt lat="43.34312300986026" lon="2.248231173186876"><ele>404.33333333333337</ele><time>2026-04-02T07:42:49Z</time></trkpt><trkpt lat="43.34320984938162" lon="2.2480131335989113"><ele>406.6666666666667</ele><time>2026-04-02T07:42:50Z</time></trkpt><trkpt lat="43.34328926045381" lon="2.247822897497096"><ele>409.0</ele><time>2026-04-02T07:42:51Z</time></trkpt><trkpt lat="43.343380256790006" lon="2.247651491847487"><ele>409.0</ele><time>2026-04-02T07:42:52Z</time></trkpt><trkpt lat="43.343492777704185" lon="2.2475083323468725"><ele>409.0</ele><time>2026-04-02T07:42:53Z</time></trkpt><trkpt lat="43.34363735663904" lon="2.247410642611112"><ele>409.0</ele><time>2026-04-02T07:42:54Z</time></trkpt><trkpt lat="43.343783307540164" lon="2.247321092817856"><ele>410.25</ele><time>2026-04-02T07:42:55Z</time></trkpt><trkpt lat="43.34391187330027" lon="2.2472518675871"><ele>411.5</ele><time>2026-04-02T07:42:56Z</time></trkpt><trkpt lat="43.34401843943677" lon="2.2472328318569583"><ele>412.75</ele><time>2026-04-02T07:42:57Z</time></trkpt><trkpt lat="43.344099720683815" lon="2.2473587310810377"><ele>414.0</ele><time>2026-04-02T07:42:59Z</time></trkpt><trkpt lat="43.34414508936775" lon="2.247502194342748"><ele>415.0</ele><time>2026-04-02T07:43:00Z</time></trkpt><trkpt lat="43.34420563201905" lon="2.247677519380606"><ele>416.0</ele><time>2026-04-02T07:43:01Z</time></trkpt><trkpt lat="43.34426836640234" lon="2.2478876590661643"><ele>417.0</ele><time>2026-04-02T07:43:02Z</time></trkpt><trkpt lat="43.344341853121875" lon="2.2480939065464773"><ele>417.0</ele><time>2026-04-02T07:43:03Z</time></trkpt><trkpt lat="43.3444075907742" lon="2.248280095290008"><ele>417.0</ele><time>2026-04-02T07:43:04Z</time></trkpt><trkpt lat="43.34448900540819" lon="2.2484519868213684"><ele>417.0</ele><time>2026-04-02T07:43:05Z</time></trkpt><trkpt lat="43.34460580206248" lon="2.248603903750858"><ele>418.66666666666663</ele><time>2026-04-02T07:43:06Z</time></trkpt><trkpt lat="43.34476418423647" lon="2.2487294540100247"><ele>420.3333333333333</ele><time>2026-04-02T07:43:07Z</time></trkpt><trkpt lat="43.3449462785017" lon="2.248852055423686"><ele>422.0</ele><time>2026-04-02T07:43:08Z</time></trkpt><trkpt lat="43.345142407037926" lon="2.249001968104095"><ele>422.0</ele><time>2026-04-02T07:43:09Z</time></trkpt><trkpt lat="43.34534260622719" lon="2.2491695270102747"><ele>422.0</ele><time>2026-04-02T07:43:10Z</time></trkpt><trkpt lat="43.34554167654743" lon="2.2493353372219085"><ele>423.3333333333333</ele><time>2026-04-02T07:43:11Z</time></trkpt><trkpt lat="43.34573583498568" lon="2.2494916332357575"><ele>424.66666666666663</ele><time>2026-04-02T07:43:12Z</time></trkpt><trkpt lat="43.34590979548715" lon="2.249631861593546"><ele>426.0</ele><time>2026-04-02T07:43:13Z</time></trkpt><trkpt lat="43.34608019829154" lon="2.249798629268444"><ele>426.0</ele><time>2026-04-02T07:43:14Z</time></trkpt><trkpt lat="43.34623594232232" lon="2.2500067523473617"><ele>426.0</ele><time>2026-04-02T07:43:15Z</time></trkpt><trkpt lat="43.34636596903477" lon="2.250211335460859"><ele>426.0</ele><time>2026-04-02T07:43:16Z</time></trkpt><trkpt lat="43.34646962848255" lon="2.250382881579714"><ele>427.5</ele><time>2026-04-02T07:43:17Z</time></trkpt><trkpt lat="43.34656271645844" lon="2.2505234285662654"><ele>429.0</ele><time>2026-04-02T07:43:18Z</time></trkpt><trkpt lat="43.34665643349923" lon="2.250608564358149"><ele>430.5</ele><time>2026-04-02T07:43:19Z</time></trkpt><trkpt lat="43.34677292659326" lon="2.250627066468619"><ele>432.0</ele><time>2026-04-02T07:43:20Z</time></trkpt><trkpt lat="43.34691573586183" lon="2.250559082771489"><ele>433.33333333333337</ele><time>2026-04-02T07:43:21Z</time></trkpt><trkpt lat="43.347058064976366" lon="2.2504356469332176"><ele>434.6666666666667</ele><time>2026-04-02T07:43:22Z</time></trkpt><trkpt lat="43.34722061761932" lon="2.2503063505160834"><ele>436.0</ele><time>2026-04-02T07:43:23Z</time></trkpt><trkpt lat="43.347394841825334" lon="2.2501880869974626"><ele>438.33333333333337</ele><time>2026-04-02T07:43:24Z</time></trkpt><trkpt lat="43.34755615919935" lon="2.250091686479518"><ele>440.66666666666663</ele><time>2026-04-02T07:43:25Z</time></trkpt><trkpt lat="43.34773014403681" lon="2.250023722275201"><ele>443.0</ele><time>2026-04-02T07:43:26Z</time></trkpt><trkpt lat="43.34791455984043" lon="2.2500041330521023"><ele>444.3333333333333</ele><time>2026-04-02T07:43:27Z</time></trkpt><trkpt lat="43.34811547238151" lon="2.2500051750588317"><ele>445.66666666666663</ele><time>2026-04-02T07:43:28Z</time></trkpt><trkpt lat="43.348317477050465" lon="2.250017929154001"><ele>447.0</ele><time>2026-04-02T07:43:29Z</time></trkpt><trkpt lat="43.34850720456496" lon="2.2500103648669483"><ele>447.0</ele><time>2026-04-02T07:43:30Z</time></trkpt><trkpt lat="43.34866605894358" lon="2.2499842315112346"><ele>447.0</ele><time>2026-04-02T07:43:31Z</time></trkpt><trkpt lat="43.348806085628034" lon="2.249929582071922"><ele>447.0</ele><time>2026-04-02T07:43:32Z</time></trkpt><trkpt lat="43.34891493324058" lon="2.249837576519512"><ele>447.0</ele><time>2026-04-02T07:43:33Z</time></trkpt><trkpt lat="43.34900944764029" lon="2.2497638916734313"><ele>447.40000000000003</ele><time>2026-04-02T07:43:34Z</time></trkpt><trkpt lat="43.34909502052668" lon="2.2497543229109316"><ele>447.80000000000007</ele><time>2026-04-02T07:43:35Z</time></trkpt><trkpt lat="43.3491557329731" lon="2.2498293618043874"><ele>448.2</ele><time>2026-04-02T07:43:36Z</time></trkpt><trkpt lat="43.34921270078312" lon="2.249965029356433"><ele>448.6</ele><time>2026-04-02T07:43:37Z</time></trkpt><trkpt lat="43.34928424504967" lon="2.2501545013836513"><ele>449.0</ele><time>2026-04-02T07:43:38Z</time></trkpt><trkpt lat="43.34936784915841" lon="2.2503572523970488"><ele>449.0</ele><time>2026-04-02T07:43:39Z</time></trkpt><trkpt lat="43.349460118833356" lon="2.2505348429681384"><ele>449.0</ele><time>2026-04-02T07:43:40Z</time></trkpt><trkpt lat="43.34955576933086" lon="2.2506900239897654"><ele>449.0</ele><time>2026-04-02T07:43:41Z</time></trkpt><trkpt lat="43.349690955167056" lon="2.250815688695679"><ele>450.75</ele><time>2026-04-02T07:43:42Z</time></trkpt><trkpt lat="43.34984393694373" lon="2.250905546636697"><ele>452.5</ele><time>2026-04-02T07:43:43Z</time></trkpt><trkpt lat="43.349950567649834" lon="2.2510472541497446"><ele>454.25</ele><time>2026-04-02T07:43:44Z</time></trkpt><trkpt lat="43.349988971744544" lon="2.251212614717276"><ele>456.0</ele><time>2026-04-02T07:43:45Z</time></trkpt><trkpt lat="43.349999270682716" lon="2.251417465187351"><ele>456.66666666666663</ele><time>2026-04-02T07:43:46Z</time></trkpt><trkpt lat="43.34995299484967" lon="2.2516308792913002"><ele>457.3333333333333</ele><time>2026-04-02T07:43:47Z</time></trkpt><trkpt lat="43.34989367041404" lon="2.251854905665345"><ele>458.0</ele><time>2026-04-02T07:43:48Z</time></trkpt><trkpt lat="43.34984814690111" lon="2.2520852500672692"><ele>459.66666666666663</ele><time>2026-04-02T07:43:49Z</time></trkpt><trkpt lat="43.34980950215758" lon="2.2523416146452613"><ele>461.33333333333337</ele><time>2026-04-02T07:43:50Z</time></trkpt><trkpt lat="43.34978879175292" lon="2.2526180748073306"><ele>463.0</ele><time>2026-04-02T07:43:51Z</time></trkpt><trkpt lat="43.349795081057245" lon="2.252869082540584"><ele>463.0</ele><time>2026-04-02T07:43:52Z</time></trkpt><trkpt lat="43.34983768122466" lon="2.2531092581122465"><ele>463.0</ele><time>2026-04-02T07:43:53Z</time></trkpt><trkpt lat="43.34991372871886" lon="2.253339558271212"><ele>463.0</ele><time>2026-04-02T07:43:54Z</time></trkpt><trkpt lat="43.35001717710012" lon="2.253532985120403"><ele>463.6666666666667</ele><time>2026-04-02T07:43:55Z</time></trkpt><trkpt lat="43.350146516929094" lon="2.253710887892887"><ele>464.33333333333337</ele><time>2026-04-02T07:43:56Z</time></trkpt><trkpt lat="43.35029051491609" lon="2.2539040997061432"><ele>465.0</ele><time>2026-04-02T07:43:57Z</time></trkpt><trkpt lat="43.35042583082621" lon="2.2541201715704124"><ele>468.66666666666663</ele><time>2026-04-02T07:43:58Z</time></trkpt><trkpt lat="43.35056252949787" lon="2.25433756696098"><ele>472.3333333333333</ele><time>2026-04-02T07:43:59Z</time></trkpt><trkpt lat="43.35068659433307" lon="2.254533518096303"><ele>476.0</ele><time>2026-04-02T07:44:00Z</time></trkpt><trkpt lat="43.35080255398127" lon="2.2547023621757907"><ele>473.75</ele><time>2026-04-02T07:44:01Z</time></trkpt><trkpt lat="43.35091916945898" lon="2.2548373882702837"><ele>471.5</ele><time>2026-04-02T07:44:02Z</time></trkpt><trkpt lat="43.351042967611846" lon="2.25491283342635"><ele>469.25</ele><time>2026-04-02T07:44:03Z</time></trkpt><trkpt lat="43.351193620560956" lon="2.254920600314011"><ele>467.0</ele><time>2026-04-02T07:44:04Z</time></trkpt><trkpt lat="43.351358171194754" lon="2.2548783657266145"><ele>470.66666666666663</ele><time>2026-04-02T07:44:05Z</time></trkpt><trkpt lat="43.35155195967745" lon="2.254831047210586"><ele>474.33333333333337</ele><time>2026-04-02T07:44:06Z</time></trkpt><trkpt lat="43.35175194406247" lon="2.2548582718128998"><ele>478.0</ele><time>2026-04-02T07:44:07Z</time></trkpt><trkpt lat="43.35196564202977" lon="2.2549269316729847"><ele>478.0</ele><time>2026-04-02T07:44:08Z</time></trkpt><trkpt lat="43.35216573480011" lon="2.2549906336724086"><ele>478.0</ele><time>2026-04-02T07:44:09Z</time></trkpt><trkpt lat="43.352355156501254" lon="2.2549991856497518"><ele>478.0</ele><time>2026-04-02T07:44:10Z</time></trkpt><trkpt lat="43.35256515932117" lon="2.254947511767973"><ele>480.0</ele><time>2026-04-02T07:44:11Z</time></trkpt><trkpt lat="43.35276515698641" lon="2.2548662118534892"><ele>482.0</ele><time>2026-04-02T07:44:12Z</time></trkpt><trkpt lat="43.35296848417819" lon="2.2548039914391538"><ele>484.0</ele><time>2026-04-02T07:44:13Z</time></trkpt><trkpt lat="43.35317067502047" lon="2.2547450341477138"><ele>485.33333333333337</ele><time>2026-04-02T07:44:14Z</time></trkpt><trkpt lat="43.353368095146934" lon="2.2546904817457927"><ele>486.66666666666663</ele><time>2026-04-02T07:44:15Z</time></trkpt><trkpt lat="43.353549228827234" lon="2.2546426269401123"><ele>488.0</ele><time>2026-04-02T07:44:16Z</time></trkpt><trkpt lat="43.353707890921264" lon="2.254588777817193"><ele>488.0</ele><time>2026-04-02T07:44:17Z</time></trkpt><trkpt lat="43.35384561065576" lon="2.2545543933039487"><ele>488.0</ele><time>2026-04-02T07:44:18Z</time></trkpt><trkpt lat="43.35397266762012" lon="2.2545900983360676"><ele>488.0</ele><time>2026-04-02T07:44:19Z</time></trkpt><trkpt lat="43.35407155339488" lon="2.2546990920837304"><ele>488.0</ele><time>2026-04-02T07:44:20Z</time></trkpt><trkpt lat="43.35408789769884" lon="2.2548570683268867"><ele>489.5</ele><time>2026-04-02T07:44:21Z</time></trkpt><trkpt lat="43.354091037702936" lon="2.2550181158724576"><ele>491.0</ele><time>2026-04-02T07:44:22Z</time></trkpt><trkpt lat="43.35413306028386" lon="2.2551906761176084"><ele>492.5</ele><time>2026-04-02T07:44:23Z</time></trkpt><trkpt lat="43.35418001759112" lon="2.2553266803569696"><ele>494.0</ele><time>2026-04-02T07:44:24Z</time></trkpt><trkpt lat="43.35427573614491" lon="2.2553931178990694"><ele>494.0</ele><time>2026-04-02T07:44:25Z</time></trkpt><trkpt lat="43.35443587500026" lon="2.2554411153983414"><ele>494.0</ele><time>2026-04-02T07:44:26Z</time></trkpt><trkpt lat="43.35461797206431" lon="2.255489061990069"><ele>494.0</ele><time>2026-04-02T07:44:27Z</time></trkpt><trkpt lat="43.35478404741938" lon="2.2555382388431333"><ele>494.75</ele><time>2026-04-02T07:44:28Z</time></trkpt><trkpt lat="43.35493264227799" lon="2.2555797968062774"><ele>495.5</ele><time>2026-04-02T07:44:29Z</time></trkpt><trkpt lat="43.35506155702292" lon="2.2556696752193846"><ele>496.25</ele><time>2026-04-02T07:44:30Z</time></trkpt><trkpt lat="43.35516955327189" lon="2.255788066005505"><ele>497.0</ele><time>2026-04-02T07:44:31Z</time></trkpt><trkpt lat="43.35523610921678" lon="2.2559829116182786"><ele>498.3333333333333</ele><time>2026-04-02T07:44:32Z</time></trkpt><trkpt lat="43.35531889745098" lon="2.2562050084106016"><ele>499.66666666666663</ele><time>2026-04-02T07:44:33Z</time></trkpt><trkpt lat="43.3554201500973" lon="2.256450131416609"><ele>501.0</ele><time>2026-04-02T07:44:34Z</time></trkpt><trkpt lat="43.35551977271057" lon="2.256721310919272"><ele>503.0</ele><time>2026-04-02T07:44:35Z</time></trkpt><trkpt lat="43.35562317086455" lon="2.2569950574328614"><ele>505.0</ele><time>2026-04-02T07:44:36Z</time></trkpt><trkpt lat="43.35571191897808" lon="2.2572331064564835"><ele>507.0</ele><time>2026-04-02T07:44:37Z</time></trkpt><trkpt lat="43.35579534118451" lon="2.2574496715599652"><ele>507.75</ele><time>2026-04-02T07:44:38Z</time></trkpt><trkpt lat="43.35587776635998" lon="2.2576324843877815"><ele>508.5</ele><time>2026-04-02T07:44:39Z</time></trkpt><trkpt lat="43.35596106523497" lon="2.2577837719602343"><ele>509.25</ele><time>2026-04-02T07:44:40Z</time></trkpt><trkpt lat="43.35606172589817" lon="2.257887337889193"><ele>510.0</ele><time>2026-04-02T07:44:41Z</time></trkpt><trkpt lat="43.35617688106773" lon="2.257935702105596"><ele>510.0</ele><time>2026-04-02T07:44:42Z</time></trkpt><trkpt lat="43.35629503094829" lon="2.2579274811796144"><ele>510.0</ele><time>2026-04-02T07:44:43Z</time></trkpt><trkpt lat="43.35642108633327" lon="2.2578671136967827"><ele>510.0</ele><time>2026-04-02T07:44:44Z</time></trkpt><trkpt lat="43.3564886090327" lon="2.257808889146637"><ele>510.0</ele><time>2026-04-02T07:44:45Z</time></trkpt><trkpt lat="43.356528277965964" lon="2.2579421181442374"><ele>510.0</ele><time>2026-04-02T07:44:48Z</time></trkpt><trkpt lat="43.35651877271038" lon="2.2580365291567364"><ele>510.5</ele><time>2026-04-02T07:44:49Z</time></trkpt><trkpt lat="43.35649570441521" lon="2.2581468838696526"><ele>511.0</ele><time>2026-04-02T07:44:50Z</time></trkpt><trkpt lat="43.35645127511231" lon="2.2582898730162295"><ele>511.5</ele><time>2026-04-02T07:44:51Z</time></trkpt><trkpt lat="43.35638420934661" lon="2.258457442725079"><ele>512.0</ele><time>2026-04-02T07:44:52Z</time></trkpt><trkpt lat="43.35630401435789" lon="2.258643908728226"><ele>510.3333333333333</ele><time>2026-04-02T07:44:53Z</time></trkpt><trkpt lat="43.35623200263991" lon="2.2588452857963826"><ele>508.66666666666663</ele><time>2026-04-02T07:44:54Z</time></trkpt><trkpt lat="43.35616691143475" lon="2.259056691381891"><ele>507.0</ele><time>2026-04-02T07:44:55Z</time></trkpt><trkpt lat="43.35613128129628" lon="2.2592953432540313"><ele>505.66666666666663</ele><time>2026-04-02T07:44:56Z</time></trkpt><trkpt lat="43.35613141827131" lon="2.259561345758998"><ele>504.3333333333333</ele><time>2026-04-02T07:44:57Z</time></trkpt><trkpt lat="43.356161458483044" lon="2.2598160157424756"><ele>503.0</ele><time>2026-04-02T07:44:58Z</time></trkpt><trkpt lat="43.3561982403974" lon="2.260036337004233"><ele>501.66666666666663</ele><time>2026-04-02T07:44:59Z</time></trkpt><trkpt lat="43.35625296695383" lon="2.260238406797395"><ele>500.33333333333337</ele><time>2026-04-02T07:45:00Z</time></trkpt><trkpt lat="43.356353373528336" lon="2.2604222997525647"><ele>499.0</ele><time>2026-04-02T07:45:01Z</time></trkpt><trkpt lat="43.356496002486516" lon="2.2605834333818615"><ele>500.6666666666667</ele><time>2026-04-02T07:45:02Z</time></trkpt><trkpt lat="43.35666252431219" lon="2.2607608251286657"><ele>502.33333333333337</ele><time>2026-04-02T07:45:03Z</time></trkpt><trkpt lat="43.35681223142486" lon="2.26097492293793"><ele>504.0</ele><time>2026-04-02T07:45:04Z</time></trkpt><trkpt lat="43.35694296564141" lon="2.261224304626833"><ele>498.33333333333337</ele><time>2026-04-02T07:45:05Z</time></trkpt><trkpt lat="43.35704392657797" lon="2.2614650726805365"><ele>492.6666666666667</ele><time>2026-04-02T07:45:06Z</time></trkpt><trkpt lat="43.35712711716848" lon="2.2616939432431593"><ele>487.0</ele><time>2026-04-02T07:45:07Z</time></trkpt><trkpt lat="43.357161126731064" lon="2.2619295703649462"><ele>487.0</ele><time>2026-04-02T07:45:08Z</time></trkpt><trkpt lat="43.35719914851787" lon="2.26216724634122"><ele>487.0</ele><time>2026-04-02T07:45:09Z</time></trkpt><trkpt lat="43.357214664569796" lon="2.2623756655487726"><ele>487.0</ele><time>2026-04-02T07:45:10Z</time></trkpt><trkpt lat="43.35726728348332" lon="2.262497984164734"><ele>487.0</ele><time>2026-04-02T07:45:11Z</time></trkpt><trkpt lat="43.35737198627062" lon="2.262571962152274"><ele>490.0</ele><time>2026-04-02T07:45:12Z</time></trkpt><trkpt lat="43.35748823382633" lon="2.262658612023139"><ele>493.0</ele><time>2026-04-02T07:45:13Z</time></trkpt><trkpt lat="43.357560333499876" lon="2.262781497159984"><ele>496.0</ele><time>2026-04-02T07:45:14Z</time></trkpt><trkpt lat="43.35755850856577" lon="2.2629493106348937"><ele>499.0</ele><time>2026-04-02T07:45:15Z</time></trkpt><trkpt lat="43.35751215081644" lon="2.2631368735869897"><ele>499.0</ele><time>2026-04-02T07:45:16Z</time></trkpt><trkpt lat="43.35742666049557" lon="2.263329567694714"><ele>499.0</ele><time>2026-04-02T07:45:17Z</time></trkpt><trkpt lat="43.357343614707126" lon="2.263501681062857"><ele>499.0</ele><time>2026-04-02T07:45:18Z</time></trkpt><trkpt lat="43.35728978804648" lon="2.2636256275229916"><ele>499.0</ele><time>2026-04-02T07:45:19Z</time></trkpt><trkpt lat="43.357270635558464" lon="2.263764838621225"><ele>499.0</ele><time>2026-04-02T07:45:20Z</time></trkpt><trkpt lat="43.35729594835028" lon="2.2639028133499566"><ele>499.0</ele><time>2026-04-02T07:45:21Z</time></trkpt><trkpt lat="43.3573719084789" lon="2.2640113214998867"><ele>499.0</ele><time>2026-04-02T07:45:22Z</time></trkpt><trkpt lat="43.35748898595419" lon="2.2640614696048003"><ele>499.0</ele><time>2026-04-02T07:45:23Z</time></trkpt><trkpt lat="43.35762752988589" lon="2.264028032968002"><ele>499.0</ele><time>2026-04-02T07:45:24Z</time></trkpt><trkpt lat="43.357780221879295" lon="2.2638907538355406"><ele>499.0</ele><time>2026-04-02T07:45:25Z</time></trkpt><trkpt lat="43.357947971556925" lon="2.263804679489129"><ele>499.0</ele><time>2026-04-02T07:45:26Z</time></trkpt><trkpt lat="43.35811034625066" lon="2.26371614948829"><ele>500.6666666666667</ele><time>2026-04-02T07:45:27Z</time></trkpt><trkpt lat="43.35827297081516" lon="2.2636255385493858"><ele>502.33333333333337</ele><time>2026-04-02T07:45:28Z</time></trkpt><trkpt lat="43.3584398989941" lon="2.263535943861206"><ele>504.0</ele><time>2026-04-02T07:45:29Z</time></trkpt><trkpt lat="43.358605314600304" lon="2.2634647904611196"><ele>504.0</ele><time>2026-04-02T07:45:30Z</time></trkpt><trkpt lat="43.35877083680447" lon="2.2634436720841453"><ele>504.0</ele><time>2026-04-02T07:45:31Z</time></trkpt><trkpt lat="43.35893977360052" lon="2.2635085229306493"><ele>504.0</ele><time>2026-04-02T07:45:32Z</time></trkpt><trkpt lat="43.35912105917513" lon="2.2635721257425456"><ele>503.66666666666663</ele><time>2026-04-02T07:45:33Z</time></trkpt><trkpt lat="43.35931083112763" lon="2.2636577084643625"><ele>503.3333333333333</ele><time>2026-04-02T07:45:34Z</time></trkpt><trkpt lat="43.35948433268713" lon="2.2637226206715386"><ele>503.0</ele><time>2026-04-02T07:45:35Z</time></trkpt><trkpt lat="43.35964427120718" lon="2.2638104268556614"><ele>502.0</ele><time>2026-04-02T07:45:36Z</time></trkpt><trkpt lat="43.359789276656926" lon="2.2638928355460655"><ele>501.0</ele><time>2026-04-02T07:45:37Z</time></trkpt><trkpt lat="43.359936406438024" lon="2.2639600435603984"><ele>500.0</ele><time>2026-04-02T07:45:38Z</time></trkpt><trkpt lat="43.36007515171663" lon="2.2640109598120324"><ele>496.75</ele><time>2026-04-02T07:45:39Z</time></trkpt><trkpt lat="43.360212677553704" lon="2.2640485834729147"><ele>493.5</ele><time>2026-04-02T07:45:40Z</time></trkpt><trkpt lat="43.36034009363229" lon="2.2640888536629418"><ele>490.25</ele><time>2026-04-02T07:45:41Z</time></trkpt><trkpt lat="43.36045988899999" lon="2.2641347924688695"><ele>487.0</ele><time>2026-04-02T07:45:42Z</time></trkpt><trkpt lat="43.3605687140006" lon="2.264199406416866"><ele>487.0</ele><time>2026-04-02T07:45:43Z</time></trkpt><trkpt lat="43.36066622941042" lon="2.2642706542163036"><ele>487.00000000000006</ele><time>2026-04-02T07:45:44Z</time></trkpt><trkpt lat="43.36075700342551" lon="2.2643473667430336"><ele>487.00000000000006</ele><time>2026-04-02T07:45:45Z</time></trkpt><trkpt lat="43.36084905347467" lon="2.2644384131322473"><ele>487.0</ele><time>2026-04-02T07:45:46Z</time></trkpt><trkpt lat="43.360944599811184" lon="2.2645359806978758"><ele>487.0</ele><time>2026-04-02T07:45:47Z</time></trkpt><trkpt lat="43.36105553170449" lon="2.26462762105206"><ele>487.0</ele><time>2026-04-02T07:45:48Z</time></trkpt><trkpt lat="43.36117430201903" lon="2.264698085648278"><ele>487.0</ele><time>2026-04-02T07:45:49Z</time></trkpt><trkpt lat="43.361306302593874" lon="2.2647387223019306"><ele>487.0</ele><time>2026-04-02T07:45:50Z</time></trkpt><trkpt lat="43.36144113119463" lon="2.2647445373027137"><ele>487.0</ele><time>2026-04-02T07:45:51Z</time></trkpt><trkpt lat="43.361570523006634" lon="2.2647163514050774"><ele>488.25</ele><time>2026-04-02T07:45:52Z</time></trkpt><trkpt lat="43.361693051687" lon="2.264652727673861"><ele>489.5</ele><time>2026-04-02T07:45:53Z</time></trkpt><trkpt lat="43.361801101891146" lon="2.2645649518902764"><ele>490.75</ele><time>2026-04-02T07:45:54Z</time></trkpt><trkpt lat="43.36189844123302" lon="2.2644581488705464"><ele>492.0</ele><time>2026-04-02T07:45:55Z</time></trkpt><trkpt lat="43.361977362936315" lon="2.2643364892752103"><ele>492.0</ele><time>2026-04-02T07:45:56Z</time></trkpt><trkpt lat="43.36202346147773" lon="2.264195155132022"><ele>492.0</ele><time>2026-04-02T07:45:57Z</time></trkpt><trkpt lat="43.36207677256662" lon="2.2640910967220407"><ele>492.0</ele><time>2026-04-02T07:45:58Z</time></trkpt><trkpt lat="43.36213276347677" lon="2.2640096073766642"><ele>492.0</ele><time>2026-04-02T07:45:59Z</time></trkpt><trkpt lat="43.362201943780384" lon="2.2639570473413513"><ele>492.0</ele><time>2026-04-02T07:46:00Z</time></trkpt><trkpt lat="43.362271991136865" lon="2.263915308844028"><ele>492.0</ele><time>2026-04-02T07:46:01Z</time></trkpt><trkpt lat="43.36236439378843" lon="2.263937782666087"><ele>490.75</ele><time>2026-04-02T07:46:02Z</time></trkpt><trkpt lat="43.362450493710085" lon="2.264007609342093"><ele>489.5</ele><time>2026-04-02T07:46:03Z</time></trkpt><trkpt lat="43.36252881845115" lon="2.264113321491951"><ele>488.25</ele><time>2026-04-02T07:46:04Z</time></trkpt><trkpt lat="43.36260758924751" lon="2.2642417011304765"><ele>487.0</ele><time>2026-04-02T07:46:05Z</time></trkpt><trkpt lat="43.36269217352536" lon="2.2643662705519763"><ele>487.0</ele><time>2026-04-02T07:46:06Z</time></trkpt><trkpt lat="43.362784955510094" lon="2.264484097744599"><ele>487.0</ele><time>2026-04-02T07:46:07Z</time></trkpt><trkpt lat="43.362886537400556" lon="2.264598586947323"><ele>487.0</ele><time>2026-04-02T07:46:08Z</time></trkpt><trkpt lat="43.36299174348526" lon="2.2647186944735647"><ele>487.0</ele><time>2026-04-02T07:46:09Z</time></trkpt><trkpt lat="43.36308770446013" lon="2.264839720523245"><ele>488.5</ele><time>2026-04-02T07:46:10Z</time></trkpt><trkpt lat="43.363174681525244" lon="2.2649658630423493"><ele>490.0</ele><time>2026-04-02T07:46:11Z</time></trkpt><trkpt lat="43.36324950040923" lon="2.265110378948914"><ele>491.5</ele><time>2026-04-02T07:46:12Z</time></trkpt><trkpt lat="43.36329662532946" lon="2.265263541232188"><ele>493.0</ele><time>2026-04-02T07:46:13Z</time></trkpt><trkpt lat="43.36332080656532" lon="2.2654252266563795"><ele>493.0</ele><time>2026-04-02T07:46:14Z</time></trkpt><trkpt lat="43.36333689675816" lon="2.2655902806145036"><ele>493.0</ele><time>2026-04-02T07:46:15Z</time></trkpt><trkpt lat="43.363352577123884" lon="2.2657571578112785"><ele>493.0</ele><time>2026-04-02T07:46:16Z</time></trkpt><trkpt lat="43.36338430740733" lon="2.26591832717393"><ele>493.0</ele><time>2026-04-02T07:46:17Z</time></trkpt><trkpt lat="43.363438466988" lon="2.2660722324732365"><ele>493.0</ele><time>2026-04-02T07:46:18Z</time></trkpt><trkpt lat="43.36351758932132" lon="2.266212793602654"><ele>493.0</ele><time>2026-04-02T07:46:19Z</time></trkpt><trkpt lat="43.3636187541093" lon="2.26632855268676"><ele>493.0</ele><time>2026-04-02T07:46:20Z</time></trkpt><trkpt lat="43.36374370433864" lon="2.266414100319839"><ele>493.0</ele><time>2026-04-02T07:46:21Z</time></trkpt><trkpt lat="43.36387514122615" lon="2.2664749684635015"><ele>493.0</ele><time>2026-04-02T07:46:22Z</time></trkpt><trkpt lat="43.364017349886126" lon="2.26651166918294"><ele>493.0</ele><time>2026-04-02T07:46:23Z</time></trkpt><trkpt lat="43.364158172274024" lon="2.26652314059303"><ele>493.0</ele><time>2026-04-02T07:46:24Z</time></trkpt><trkpt lat="43.3642980558033" lon="2.2665203403451146"><ele>493.0</ele><time>2026-04-02T07:46:25Z</time></trkpt><trkpt lat="43.36443834490178" lon="2.266517036937323"><ele>493.0</ele><time>2026-04-02T07:46:26Z</time></trkpt><trkpt lat="43.36457282331336" lon="2.266527319250774"><ele>493.0</ele><time>2026-04-02T07:46:27Z</time></trkpt><trkpt lat="43.3646983768682" lon="2.26654327616791"><ele>493.0</ele><time>2026-04-02T07:46:28Z</time></trkpt><trkpt lat="43.36481491244448" lon="2.2665572184165685"><ele>493.0</ele><time>2026-04-02T07:46:29Z</time></trkpt><trkpt lat="43.36492496284539" lon="2.266576398132684"><ele>495.25</ele><time>2026-04-02T07:46:30Z</time></trkpt><trkpt lat="43.36502625059754" lon="2.266628295777141"><ele>497.5</ele><time>2026-04-02T07:46:31Z</time></trkpt><trkpt lat="43.36511999996767" lon="2.266720403529354"><ele>499.75</ele><time>2026-04-02T07:46:32Z</time></trkpt><trkpt lat="43.36520000138196" lon="2.266830245749404"><ele>502.0</ele><time>2026-04-02T07:46:33Z</time></trkpt><trkpt lat="43.36528398046665" lon="2.2669541475676183"><ele>502.0</ele><time>2026-04-02T07:46:34Z</time></trkpt><trkpt lat="43.36535613576225" lon="2.267099156004545"><ele>502.0</ele><time>2026-04-02T07:46:35Z</time></trkpt><trkpt lat="43.36541873239469" lon="2.2672594733617584"><ele>502.0</ele><time>2026-04-02T07:46:36Z</time></trkpt><trkpt lat="43.365481326802616" lon="2.2674259502174543"><ele>502.0</ele><time>2026-04-02T07:46:37Z</time></trkpt><trkpt lat="43.365552930964014" lon="2.2675887733303615"><ele>500.75</ele><time>2026-04-02T07:46:38Z</time></trkpt><trkpt lat="43.365638456433125" lon="2.2677503913197126"><ele>499.5</ele><time>2026-04-02T07:46:39Z</time></trkpt><trkpt lat="43.36573172142027" lon="2.2679164665893237"><ele>498.25</ele><time>2026-04-02T07:46:40Z</time></trkpt><trkpt lat="43.36581609302844" lon="2.2680623363392898"><ele>497.0</ele><time>2026-04-02T07:46:41Z</time></trkpt><trkpt lat="43.36590511719832" lon="2.2682048881059855"><ele>497.0</ele><time>2026-04-02T07:46:42Z</time></trkpt><trkpt lat="43.36600713901479" lon="2.2683493830104964"><ele>497.0</ele><time>2026-04-02T07:46:43Z</time></trkpt><trkpt lat="43.36611946200053" lon="2.2684840779992244"><ele>497.0</ele><time>2026-04-02T07:46:44Z</time></trkpt><trkpt lat="43.36622531583861" lon="2.2685906548192936"><ele>497.0</ele><time>2026-04-02T07:46:45Z</time></trkpt><trkpt lat="43.366329483834164" lon="2.268691404790079"><ele>499.25</ele><time>2026-04-02T07:46:46Z</time></trkpt><trkpt lat="43.36646534315496" lon="2.268740726897557"><ele>501.5</ele><time>2026-04-02T07:46:47Z</time></trkpt><trkpt lat="43.366573768178746" lon="2.268786566727961"><ele>503.75</ele><time>2026-04-02T07:46:48Z</time></trkpt><trkpt lat="43.36666012862078" lon="2.268866927179333"><ele>506.0</ele><time>2026-04-02T07:46:49Z</time></trkpt><trkpt lat="43.36672806283816" lon="2.2689827761205335"><ele>506.0</ele><time>2026-04-02T07:46:50Z</time></trkpt><trkpt lat="43.36674770909306" lon="2.2691359407390577"><ele>506.0</ele><time>2026-04-02T07:46:51Z</time></trkpt><trkpt lat="43.366750452066356" lon="2.269285648746819"><ele>506.0</ele><time>2026-04-02T07:46:52Z</time></trkpt><trkpt lat="43.36673112854516" lon="2.2694603709689924"><ele>506.0</ele><time>2026-04-02T07:46:53Z</time></trkpt><trkpt lat="43.366688660573224" lon="2.269632031327865"><ele>504.5</ele><time>2026-04-02T07:46:54Z</time></trkpt><trkpt lat="43.36664488038006" lon="2.269803879513672"><ele>503.0</ele><time>2026-04-02T07:46:55Z</time></trkpt><trkpt lat="43.366582906214695" lon="2.2699646468425483"><ele>501.5</ele><time>2026-04-02T07:46:56Z</time></trkpt><trkpt lat="43.366526951750906" lon="2.2701117567006923"><ele>500.0</ele><time>2026-04-02T07:46:57Z</time></trkpt><trkpt lat="43.36649260002343" lon="2.270248135847192"><ele>500.0</ele><time>2026-04-02T07:46:58Z</time></trkpt><trkpt lat="43.36649890968589" lon="2.2703800421411913"><ele>500.0</ele><time>2026-04-02T07:46:59Z</time></trkpt><trkpt lat="43.36656406090562" lon="2.2704719384964522"><ele>500.0</ele><time>2026-04-02T07:47:00Z</time></trkpt><trkpt lat="43.366623797768135" lon="2.2705511890592747"><ele>500.0</ele><time>2026-04-02T07:47:01Z</time></trkpt><trkpt lat="43.36672471249947" lon="2.270560350110398"><ele>500.0</ele><time>2026-04-02T07:47:02Z</time></trkpt><trkpt lat="43.3668226230369" lon="2.2705224417239647"><ele>500.0</ele><time>2026-04-02T07:47:03Z</time></trkpt><trkpt lat="43.366929758888695" lon="2.2704693552106683"><ele>500.0</ele><time>2026-04-02T07:47:04Z</time></trkpt><trkpt lat="43.36705147841567" lon="2.2704486874152114"><ele>500.0</ele><time>2026-04-02T07:47:05Z</time></trkpt><trkpt lat="43.367163733464864" lon="2.270517123006729"><ele>500.0</ele><time>2026-04-02T07:47:06Z</time></trkpt><trkpt lat="43.36728039130033" lon="2.2705989900752055"><ele>501.75</ele><time>2026-04-02T07:47:07Z</time></trkpt><trkpt lat="43.36741066900411" lon="2.2706848770535815"><ele>503.5</ele><time>2026-04-02T07:47:08Z</time></trkpt><trkpt lat="43.36752705816023" lon="2.2708133644296487"><ele>505.25</ele><time>2026-04-02T07:47:09Z</time></trkpt><trkpt lat="43.36759607898047" lon="2.270978163065048"><ele>507.0</ele><time>2026-04-02T07:47:10Z</time></trkpt><trkpt lat="43.367637172969516" lon="2.2711410467177218"><ele>507.0</ele><time>2026-04-02T07:47:11Z</time></trkpt><trkpt lat="43.367626470203604" lon="2.2712891257467045"><ele>507.00000000000006</ele><time>2026-04-02T07:47:12Z</time></trkpt><trkpt lat="43.3675877831483" lon="2.2714060253985915"><ele>507.00000000000006</ele><time>2026-04-02T07:47:13Z</time></trkpt><trkpt lat="43.3675403639765" lon="2.271526563661522"><ele>507.0</ele><time>2026-04-02T07:47:14Z</time></trkpt><trkpt lat="43.36749058171183" lon="2.271646453035751"><ele>507.0</ele><time>2026-04-02T07:47:15Z</time></trkpt><trkpt lat="43.36745357708224" lon="2.271771071289152"><ele>505.8</ele><time>2026-04-02T07:47:16Z</time></trkpt><trkpt lat="43.36741428152251" lon="2.2718816169153127"><ele>504.6</ele><time>2026-04-02T07:47:17Z</time></trkpt><trkpt lat="43.36740707928948" lon="2.2720036337414635"><ele>503.40000000000003</ele><time>2026-04-02T07:47:18Z</time></trkpt><trkpt lat="43.36746333680296" lon="2.2721085060537383"><ele>502.20000000000005</ele><time>2026-04-02T07:47:19Z</time></trkpt><trkpt lat="43.36753247437515" lon="2.2722083485550586"><ele>501.0</ele><time>2026-04-02T07:47:20Z</time></trkpt><trkpt lat="43.36763191513439" lon="2.2722570604527217"><ele>501.25</ele><time>2026-04-02T07:47:21Z</time></trkpt><trkpt lat="43.36774207133207" lon="2.272289861995689"><ele>501.5</ele><time>2026-04-02T07:47:22Z</time></trkpt><trkpt lat="43.36785679195488" lon="2.2723288423593404"><ele>501.75</ele><time>2026-04-02T07:47:23Z</time></trkpt><trkpt lat="43.36797966062218" lon="2.27238079216905"><ele>502.0</ele><time>2026-04-02T07:47:24Z</time></trkpt><trkpt lat="43.368103720880974" lon="2.2724396247851306"><ele>503.0</ele><time>2026-04-02T07:47:25Z</time></trkpt><trkpt lat="43.36822703498257" lon="2.2724974783138556"><ele>504.0</ele><time>2026-04-02T07:47:26Z</time></trkpt><trkpt lat="43.368347692901786" lon="2.2725591031789465"><ele>505.0</ele><time>2026-04-02T07:47:27Z</time></trkpt><trkpt lat="43.368463852872665" lon="2.272629019884546"><ele>506.0</ele><time>2026-04-02T07:47:28Z</time></trkpt><trkpt lat="43.36857005607619" lon="2.2726916223646407"><ele>506.0</ele><time>2026-04-02T07:47:29Z</time></trkpt><trkpt lat="43.368676323327875" lon="2.272757477570344"><ele>506.0</ele><time>2026-04-02T07:47:30Z</time></trkpt><trkpt lat="43.36877308506731" lon="2.2728491761086915"><ele>506.0</ele><time>2026-04-02T07:47:31Z</time></trkpt><trkpt lat="43.36885258471981" lon="2.272975594577498"><ele>506.0</ele><time>2026-04-02T07:47:32Z</time></trkpt><trkpt lat="43.368907639057156" lon="2.2731238821974373"><ele>506.5</ele><time>2026-04-02T07:47:33Z</time></trkpt><trkpt lat="43.36895562269531" lon="2.273267981488914"><ele>507.0</ele><time>2026-04-02T07:47:34Z</time></trkpt><trkpt lat="43.36901710781603" lon="2.27339410053085"><ele>507.5</ele><time>2026-04-02T07:47:35Z</time></trkpt><trkpt lat="43.369104800636734" lon="2.2735017064204652"><ele>508.0</ele><time>2026-04-02T07:47:36Z</time></trkpt><trkpt lat="43.3692116934136" lon="2.273608030164051"><ele>508.0</ele><time>2026-04-02T07:47:37Z</time></trkpt><trkpt lat="43.36932095301563" lon="2.2737056008382246"><ele>508.0</ele><time>2026-04-02T07:47:38Z</time></trkpt><trkpt lat="43.369427615166956" lon="2.2737988463591177"><ele>508.0</ele><time>2026-04-02T07:47:39Z</time></trkpt><trkpt lat="43.36951354937215" lon="2.273912751851307"><ele>508.0</ele><time>2026-04-02T07:47:40Z</time></trkpt><trkpt lat="43.36957547748663" lon="2.2740533637142515"><ele>507.0</ele><time>2026-04-02T07:47:41Z</time></trkpt><trkpt lat="43.369604635189994" lon="2.274203850785286"><ele>505.99999999999994</ele><time>2026-04-02T07:47:42Z</time></trkpt><trkpt lat="43.36963243640595" lon="2.2743470587018533"><ele>504.99999999999994</ele><time>2026-04-02T07:47:43Z</time></trkpt><trkpt lat="43.36966761788469" lon="2.2744878457089293"><ele>504.0</ele><time>2026-04-02T07:47:44Z</time></trkpt><trkpt lat="43.36969222604267" lon="2.2746190500214034"><ele>503.0</ele><time>2026-04-02T07:47:45Z</time></trkpt><trkpt lat="43.369709128106" lon="2.2747438032083362"><ele>504.49999999999994</ele><time>2026-04-02T07:47:46Z</time></trkpt><trkpt lat="43.369726328556666" lon="2.274857601793188"><ele>506.0</ele><time>2026-04-02T07:47:47Z</time></trkpt><trkpt lat="43.36973571302407" lon="2.274959810352694"><ele>507.5</ele><time>2026-04-02T07:47:48Z</time></trkpt><trkpt lat="43.36973718562279" lon="2.2750573644327217"><ele>509.0</ele><time>2026-04-02T07:47:49Z</time></trkpt><trkpt lat="43.36973316461148" lon="2.275162034185969"><ele>510.49999999999994</ele><time>2026-04-02T07:47:50Z</time></trkpt><trkpt lat="43.369693643685935" lon="2.2753104865193485"><ele>512.0</ele><time>2026-04-02T07:47:51Z</time></trkpt><trkpt lat="43.369769913711394" lon="2.2754844659599844"><ele>513.6666666666666</ele><time>2026-04-02T07:47:52Z</time></trkpt><trkpt lat="43.36971176377678" lon="2.275699784996752"><ele>515.3333333333334</ele><time>2026-04-02T07:47:53Z</time></trkpt><trkpt lat="43.369668773719155" lon="2.275900129195096"><ele>517.0</ele><time>2026-04-02T07:47:54Z</time></trkpt><trkpt lat="43.36961721507127" lon="2.276114585172291"><ele>515.6666666666667</ele><time>2026-04-02T07:47:55Z</time></trkpt><trkpt lat="43.369559395287645" lon="2.2763297453588374"><ele>514.3333333333334</ele><time>2026-04-02T07:47:56Z</time></trkpt><trkpt lat="43.36949099256625" lon="2.276560459495643"><ele>513.0</ele><time>2026-04-02T07:47:57Z</time></trkpt><trkpt lat="43.369419122404466" lon="2.276806856135276"><ele>513.0</ele><time>2026-04-02T07:47:58Z</time></trkpt><trkpt lat="43.36934812673655" lon="2.2770736143000385"><ele>513.0</ele><time>2026-04-02T07:47:59Z</time></trkpt><trkpt lat="43.369288173678505" lon="2.277311251904474"><ele>513.0</ele><time>2026-04-02T07:48:00Z</time></trkpt><trkpt lat="43.36924308855972" lon="2.277561618093944"><ele>517.6666666666666</ele><time>2026-04-02T07:48:01Z</time></trkpt><trkpt lat="43.369228612797116" lon="2.2778412995135775"><ele>522.3333333333333</ele><time>2026-04-02T07:48:02Z</time></trkpt><trkpt lat="43.36924565402722" lon="2.2781252196663604"><ele>527.0</ele><time>2026-04-02T07:48:03Z</time></trkpt><trkpt lat="43.36928945909351" lon="2.278394490885424"><ele>526.0</ele><time>2026-04-02T07:48:04Z</time></trkpt><trkpt lat="43.3693642556756" lon="2.278639855832168"><ele>525.0</ele><time>2026-04-02T07:48:05Z</time></trkpt><trkpt lat="43.3694611815313" lon="2.2788778955869304"><ele>524.0</ele><time>2026-04-02T07:48:06Z</time></trkpt><trkpt lat="43.369577965315855" lon="2.2790865844220054"><ele>533.0</ele><time>2026-04-02T07:48:07Z</time></trkpt><trkpt lat="43.369715695052456" lon="2.2792675825191853"><ele>542.0</ele><time>2026-04-02T07:48:08Z</time></trkpt><trkpt lat="43.36983818250896" lon="2.279383967459429"><ele>551.0</ele><time>2026-04-02T07:48:09Z</time></trkpt><trkpt lat="43.36995731943264" lon="2.2794349238473353"><ele>551.0</ele><time>2026-04-02T07:48:10Z</time></trkpt><trkpt lat="43.37007503504668" lon="2.279418600857705"><ele>551.0</ele><time>2026-04-02T07:48:11Z</time></trkpt><trkpt lat="43.37016108203123" lon="2.2793446926314163"><ele>551.0</ele><time>2026-04-02T07:48:12Z</time></trkpt><trkpt lat="43.370276533271245" lon="2.2795051207695116"><ele>551.0</ele><time>2026-04-02T07:48:16Z</time></trkpt><trkpt lat="43.370315204876825" lon="2.279655552034152"><ele>552.5</ele><time>2026-04-02T07:48:17Z</time></trkpt><trkpt lat="43.370343337919124" lon="2.2797795620039945"><ele>554.0</ele><time>2026-04-02T07:48:18Z</time></trkpt><trkpt lat="43.37037301076379" lon="2.279893257971253"><ele>555.5</ele><time>2026-04-02T07:48:19Z</time></trkpt><trkpt lat="43.370412006027514" lon="2.2799980028631404"><ele>557.0</ele><time>2026-04-02T07:48:20Z</time></trkpt><trkpt lat="43.37047388060499" lon="2.2800776130171925"><ele>558.5</ele><time>2026-04-02T07:48:21Z</time></trkpt><trkpt lat="43.370555909505875" lon="2.2801172082406405"><ele>560.0</ele><time>2026-04-02T07:48:22Z</time></trkpt><trkpt lat="43.37066527925794" lon="2.2801375232223586"><ele>560.0</ele><time>2026-04-02T07:48:23Z</time></trkpt><trkpt lat="43.3707785142411" lon="2.2801703765953696"><ele>560.0</ele><time>2026-04-02T07:48:24Z</time></trkpt><trkpt lat="43.37087563777072" lon="2.2802345576919585"><ele>560.0</ele><time>2026-04-02T07:48:25Z</time></trkpt><trkpt lat="43.370925160112655" lon="2.2803127066020603"><ele>560.0</ele><time>2026-04-02T07:48:26Z</time></trkpt><trkpt lat="43.370975359438326" lon="2.280399973294882"><ele>560.0</ele><time>2026-04-02T07:48:27Z</time></trkpt><trkpt lat="43.371077426321634" lon="2.2805987540505277"><ele>556.2</ele><time>2026-04-02T07:48:28Z</time></trkpt><trkpt lat="43.37114514167639" lon="2.280738718067631"><ele>552.4</ele><time>2026-04-02T07:48:29Z</time></trkpt><trkpt lat="43.37118716611409" lon="2.280846724648765"><ele>548.6</ele><time>2026-04-02T07:48:30Z</time></trkpt><trkpt lat="43.37119127653408" lon="2.2809709514363194"><ele>544.8</ele><time>2026-04-02T07:48:31Z</time></trkpt><trkpt lat="43.37119595738733" lon="2.2811398461739993"><ele>541.0</ele><time>2026-04-02T07:48:32Z</time></trkpt><trkpt lat="43.371226813637804" lon="2.2813053430864456"><ele>538.6</ele><time>2026-04-02T07:48:33Z</time></trkpt><trkpt lat="43.37123595019149" lon="2.281454739072428"><ele>536.2</ele><time>2026-04-02T07:48:34Z</time></trkpt><trkpt lat="43.37124430831913" lon="2.281566027967902"><ele>533.8</ele><time>2026-04-02T07:48:35Z</time></trkpt><trkpt lat="43.37124090048021" lon="2.2816957248128285"><ele>531.4</ele><time>2026-04-02T07:48:37Z</time></trkpt><trkpt lat="43.371193224795064" lon="2.28181502429805"><ele>529.0</ele><time>2026-04-02T07:48:39Z</time></trkpt><trkpt lat="43.371126171329955" lon="2.2818081149188933"><ele>529.0</ele><time>2026-04-02T07:48:40Z</time></trkpt><trkpt lat="43.37102144918282" lon="2.281896697505542"><ele>529.0</ele><time>2026-04-02T07:48:42Z</time></trkpt><trkpt lat="43.3709645259924" lon="2.2819491399938516"><ele>529.0</ele><time>2026-04-02T07:48:43Z</time></trkpt><trkpt lat="43.37090693368797" lon="2.282016062566812"><ele>529.0</ele><time>2026-04-02T07:48:44Z</time></trkpt><trkpt lat="43.37086848078039" lon="2.282113731106513"><ele>529.0</ele><time>2026-04-02T07:48:45Z</time></trkpt><trkpt lat="43.37082969186992" lon="2.282199229254833"><ele>529.0</ele><time>2026-04-02T07:48:46Z</time></trkpt><trkpt lat="43.37079067121126" lon="2.282282897675494"><ele>528.5714285714286</ele><time>2026-04-02T07:48:47Z</time></trkpt><trkpt lat="43.37074394662648" lon="2.2823609411991863"><ele>528.1428571428571</ele><time>2026-04-02T07:48:48Z</time></trkpt><trkpt lat="43.37071233032804" lon="2.282453357209587"><ele>527.7142857142857</ele><time>2026-04-02T07:48:49Z</time></trkpt><trkpt lat="43.37068301880321" lon="2.2825453493613113"><ele>527.2857142857142</ele><time>2026-04-02T07:48:50Z</time></trkpt><trkpt lat="43.37065766726526" lon="2.28263567847606"><ele>526.8571428571428</ele><time>2026-04-02T07:48:51Z</time></trkpt><trkpt lat="43.37063521809224" lon="2.2827233558833346"><ele>526.4285714285714</ele><time>2026-04-02T07:48:52Z</time></trkpt><trkpt lat="43.370619161763855" lon="2.2828082721263896"><ele>526.0</ele><time>2026-04-02T07:48:53Z</time></trkpt><trkpt lat="43.37061489797103" lon="2.282914264531407"><ele>526.0</ele><time>2026-04-02T07:48:55Z</time></trkpt><trkpt lat="43.37074002832302" lon="2.2829329215183223"><ele>526.0</ele><time>2026-04-02T07:49:00Z</time></trkpt><trkpt lat="43.37082030132396" lon="2.2830011008107807"><ele>526.0</ele><time>2026-04-02T07:49:03Z</time></trkpt><trkpt lat="43.370825057678054" lon="2.283118458964426"><ele>526.0</ele><time>2026-04-02T07:49:05Z</time></trkpt><trkpt lat="43.37075782482893" lon="2.283651630439227"><ele>524.8333333333334</ele><time>2026-04-02T07:49:06Z</time></trkpt><trkpt lat="43.37074367013112" lon="2.2837377258016156"><ele>523.6666666666667</ele><time>2026-04-02T07:49:07Z</time></trkpt><trkpt lat="43.37066772401486" lon="2.2838479881438953"><ele>522.5</ele><time>2026-04-02T07:49:09Z</time></trkpt><trkpt lat="43.370618492365544" lon="2.283903494138808"><ele>521.3333333333334</ele><time>2026-04-02T07:49:10Z</time></trkpt><trkpt lat="43.370525529309795" lon="2.284019891554547"><ele>520.1666666666666</ele><time>2026-04-02T07:49:12Z</time></trkpt><trkpt lat="43.37047860030573" lon="2.2840868660041616"><ele>519.0</ele><time>2026-04-02T07:49:13Z</time></trkpt><trkpt lat="43.370431557336985" lon="2.284188510752999"><ele>517.3333333333334</ele><time>2026-04-02T07:49:14Z</time></trkpt><trkpt lat="43.37038680010312" lon="2.2842965467090477"><ele>515.6666666666666</ele><time>2026-04-02T07:49:15Z</time></trkpt><trkpt lat="43.37033012712007" lon="2.284392403535844"><ele>514.0</ele><time>2026-04-02T07:49:16Z</time></trkpt><trkpt lat="43.37028176511409" lon="2.2844863783485145"><ele>512.3333333333333</ele><time>2026-04-02T07:49:17Z</time></trkpt><trkpt lat="43.37023881842537" lon="2.2845791162449705"><ele>510.66666666666663</ele><time>2026-04-02T07:49:18Z</time></trkpt><trkpt lat="43.37020692199909" lon="2.284681445435599"><ele>509.0</ele><time>2026-04-02T07:49:19Z</time></trkpt><trkpt lat="43.37018197521874" lon="2.2847799941536624"><ele>508.66666666666663</ele><time>2026-04-02T07:49:20Z</time></trkpt><trkpt lat="43.370164684881345" lon="2.2848804202037787"><ele>508.3333333333333</ele><time>2026-04-02T07:49:21Z</time></trkpt><trkpt lat="43.37015189909389" lon="2.2849777934028723"><ele>508.0</ele><time>2026-04-02T07:49:22Z</time></trkpt><trkpt lat="43.37014328660562" lon="2.2850666805938236"><ele>507.66666666666663</ele><time>2026-04-02T07:49:23Z</time></trkpt><trkpt lat="43.37012805934368" lon="2.285215758599203"><ele>507.3333333333333</ele><time>2026-04-02T07:49:25Z</time></trkpt><trkpt lat="43.37010101129771" lon="2.285338404634198"><ele>507.0</ele><time>2026-04-02T07:49:27Z</time></trkpt><trkpt lat="43.370119986759555" lon="2.285424321062009"><ele>507.0</ele><time>2026-04-02T07:49:29Z</time></trkpt><trkpt lat="43.370270447232464" lon="2.2854347975182883"><ele>507.00000000000006</ele><time>2026-04-02T07:49:31Z</time></trkpt><trkpt lat="43.370340997960916" lon="2.285448649904623"><ele>507.00000000000006</ele><time>2026-04-02T07:49:32Z</time></trkpt><trkpt lat="43.37040401013838" lon="2.2854742117588276"><ele>507.0</ele><time>2026-04-02T07:49:33Z</time></trkpt><trkpt lat="43.370466642204974" lon="2.285525481467872"><ele>507.0</ele><time>2026-04-02T07:49:34Z</time></trkpt><trkpt lat="43.37053084862295" lon="2.285639761181146"><ele>510.5</ele><time>2026-04-02T07:49:35Z</time></trkpt><trkpt lat="43.3706118066475" lon="2.2857694211161323"><ele>514.0</ele><time>2026-04-02T07:49:36Z</time></trkpt><trkpt lat="43.37069143993695" lon="2.2858888425827066"><ele>517.5</ele><time>2026-04-02T07:49:37Z</time></trkpt><trkpt lat="43.37075781110829" lon="2.286010382471115"><ele>521.0</ele><time>2026-04-02T07:49:38Z</time></trkpt><trkpt lat="43.3708207730458" lon="2.2861326482236546"><ele>521.0</ele><time>2026-04-02T07:49:39Z</time></trkpt><trkpt lat="43.37085979577089" lon="2.286252298768457"><ele>521.0</ele><time>2026-04-02T07:49:40Z</time></trkpt><trkpt lat="43.37085141623348" lon="2.2863883997930423"><ele>521.0</ele><time>2026-04-02T07:49:41Z</time></trkpt><trkpt lat="43.37086455221966" lon="2.2865256995855594"><ele>521.0</ele><time>2026-04-02T07:49:42Z</time></trkpt><trkpt lat="43.37085584110246" lon="2.2866639866497955"><ele>521.0</ele><time>2026-04-02T07:49:43Z</time></trkpt><trkpt lat="43.37086278122529" lon="2.2867935008407105"><ele>520.5714285714286</ele><time>2026-04-02T07:49:44Z</time></trkpt><trkpt lat="43.37087657445627" lon="2.2869047308296717"><ele>520.1428571428571</ele><time>2026-04-02T07:49:45Z</time></trkpt><trkpt lat="43.370880385023455" lon="2.287005333819698"><ele>519.7142857142858</ele><time>2026-04-02T07:49:46Z</time></trkpt><trkpt lat="43.370882016736566" lon="2.2871022599583397"><ele>519.2857142857142</ele><time>2026-04-02T07:49:47Z</time></trkpt><trkpt lat="43.370870650127564" lon="2.2871969708365643"><ele>518.8571428571429</ele><time>2026-04-02T07:49:48Z</time></trkpt><trkpt lat="43.37085127460529" lon="2.287287195481918"><ele>518.4285714285714</ele><time>2026-04-02T07:49:49Z</time></trkpt><trkpt lat="43.370830754554305" lon="2.2873731993809088"><ele>518.0</ele><time>2026-04-02T07:49:50Z</time></trkpt><trkpt lat="43.37080338454135" lon="2.2875347252967124"><ele>517.8</ele><time>2026-04-02T07:49:52Z</time></trkpt><trkpt lat="43.37075384982396" lon="2.287654840236599"><ele>517.5999999999999</ele><time>2026-04-02T07:49:54Z</time></trkpt><trkpt lat="43.37060524430189" lon="2.287555327449964"><ele>517.4000000000001</ele><time>2026-04-02T07:49:56Z</time></trkpt><trkpt lat="43.37053377589914" lon="2.287532673897673"><ele>517.2</ele><time>2026-04-02T07:49:57Z</time></trkpt><trkpt lat="43.37045855449874" lon="2.287524236663879"><ele>517.0</ele><time>2026-04-02T07:49:58Z</time></trkpt><trkpt lat="43.3703893683379" lon="2.287497520054521"><ele>515.4</ele><time>2026-04-02T07:49:59Z</time></trkpt><trkpt lat="43.37029762398976" lon="2.2874432956690427"><ele>513.8000000000001</ele><time>2026-04-02T07:50:01Z</time></trkpt><trkpt lat="43.37024161955334" lon="2.2876274799739864"><ele>512.2</ele><time>2026-04-02T07:50:04Z</time></trkpt><trkpt lat="43.370219851242844" lon="2.287736701346491"><ele>510.6</ele><time>2026-04-02T07:50:05Z</time></trkpt><trkpt lat="43.37020134698853" lon="2.287895582033465"><ele>509.0</ele><time>2026-04-02T07:50:06Z</time></trkpt><trkpt lat="43.37019388261048" lon="2.2880880110325807"><ele>509.25</ele><time>2026-04-02T07:50:07Z</time></trkpt><trkpt lat="43.37019146812687" lon="2.2882723212608576"><ele>509.5</ele><time>2026-04-02T07:50:08Z</time></trkpt><trkpt lat="43.37017253649488" lon="2.2884547204795607"><ele>509.75</ele><time>2026-04-02T07:50:09Z</time></trkpt><trkpt lat="43.37016604765837" lon="2.2886295162871537"><ele>510.0</ele><time>2026-04-02T07:50:10Z</time></trkpt><trkpt lat="43.37017676862305" lon="2.288810432725164"><ele>510.5</ele><time>2026-04-02T07:50:11Z</time></trkpt><trkpt lat="43.37020654071069" lon="2.2890146207015083"><ele>511.0</ele><time>2026-04-02T07:50:12Z</time></trkpt><trkpt lat="43.370236742777365" lon="2.2892094159168894"><ele>511.5</ele><time>2026-04-02T07:50:13Z</time></trkpt><trkpt lat="43.37026283109713" lon="2.289394668131328"><ele>512.0</ele><time>2026-04-02T07:50:14Z</time></trkpt><trkpt lat="43.37028117267335" lon="2.2895716360359866"><ele>512.0</ele><time>2026-04-02T07:50:15Z</time></trkpt><trkpt lat="43.370300874069045" lon="2.289751230927075"><ele>512.0</ele><time>2026-04-02T07:50:16Z</time></trkpt><trkpt lat="43.370337639008056" lon="2.2899116817544813"><ele>512.0</ele><time>2026-04-02T07:50:17Z</time></trkpt><trkpt lat="43.37041103845381" lon="2.2900539766084775"><ele>512.0</ele><time>2026-04-02T07:50:18Z</time></trkpt><trkpt lat="43.3705149951349" lon="2.2901995135138997"><ele>516.25</ele><time>2026-04-02T07:50:19Z</time></trkpt><trkpt lat="43.37060185941133" lon="2.290357066805164"><ele>520.5</ele><time>2026-04-02T07:50:20Z</time></trkpt><trkpt lat="43.370650700969904" lon="2.2905389438648713"><ele>524.75</ele><time>2026-04-02T07:50:21Z</time></trkpt><trkpt lat="43.37070127340271" lon="2.290749207910876"><ele>529.0</ele><time>2026-04-02T07:50:22Z</time></trkpt><trkpt lat="43.37073661569008" lon="2.2909753290637846"><ele>529.0</ele><time>2026-04-02T07:50:23Z</time></trkpt><trkpt lat="43.37073412995496" lon="2.291204297746593"><ele>529.0</ele><time>2026-04-02T07:50:24Z</time></trkpt><trkpt lat="43.370740012955864" lon="2.2914492479976643"><ele>529.0</ele><time>2026-04-02T07:50:25Z</time></trkpt><trkpt lat="43.37076465218619" lon="2.2916755761047485"><ele>529.0</ele><time>2026-04-02T07:50:26Z</time></trkpt><trkpt lat="43.37080261398006" lon="2.2919214976418667"><ele>529.0</ele><time>2026-04-02T07:50:27Z</time></trkpt><trkpt lat="43.37079846562396" lon="2.292159610327305"><ele>529.0</ele><time>2026-04-02T07:50:28Z</time></trkpt><trkpt lat="43.37076601460889" lon="2.2924160853196827"><ele>528.6666666666667</ele><time>2026-04-02T07:50:29Z</time></trkpt><trkpt lat="43.37076868920528" lon="2.292691360153173"><ele>528.3333333333334</ele><time>2026-04-02T07:50:30Z</time></trkpt><trkpt lat="43.37074984456879" lon="2.2929410377169788"><ele>528.0</ele><time>2026-04-02T07:50:31Z</time></trkpt><trkpt lat="43.3707551008774" lon="2.293188495834135"><ele>527.6666666666666</ele><time>2026-04-02T07:50:32Z</time></trkpt><trkpt lat="43.37075965347437" lon="2.293426789581135"><ele>527.3333333333333</ele><time>2026-04-02T07:50:33Z</time></trkpt><trkpt lat="43.370770958896806" lon="2.2936546072591026"><ele>527.0</ele><time>2026-04-02T07:50:34Z</time></trkpt><trkpt lat="43.37079049928169" lon="2.293849464757787"><ele>526.4</ele><time>2026-04-02T07:50:35Z</time></trkpt><trkpt lat="43.37080108616062" lon="2.2939954512372753"><ele>525.8000000000001</ele><time>2026-04-02T07:50:36Z</time></trkpt><trkpt lat="43.37080004007189" lon="2.294119337839569"><ele>525.2</ele><time>2026-04-02T07:50:37Z</time></trkpt><trkpt lat="43.37076470076228" lon="2.294235774520221"><ele>524.6</ele><time>2026-04-02T07:50:38Z</time></trkpt><trkpt lat="43.37075245919411" lon="2.294354035146402"><ele>524.0</ele><time>2026-04-02T07:50:39Z</time></trkpt><trkpt lat="43.370723977361514" lon="2.294480045039269"><ele>524.0</ele><time>2026-04-02T07:50:40Z</time></trkpt><trkpt lat="43.37069669936315" lon="2.294621680557184"><ele>524.0</ele><time>2026-04-02T07:50:41Z</time></trkpt><trkpt lat="43.370677332076724" lon="2.294748940298483"><ele>524.0</ele><time>2026-04-02T07:50:42Z</time></trkpt><trkpt lat="43.37065185152885" lon="2.294859436615019"><ele>524.0</ele><time>2026-04-02T07:50:43Z</time></trkpt><trkpt lat="43.37063657277833" lon="2.294961694899899"><ele>524.0</ele><time>2026-04-02T07:50:44Z</time></trkpt><trkpt lat="43.37063638917358" lon="2.295061000938624"><ele>524.0</ele><time>2026-04-02T07:50:45Z</time></trkpt><trkpt lat="43.370639452085484" lon="2.2951723967731783"><ele>525.0</ele><time>2026-04-02T07:50:46Z</time></trkpt><trkpt lat="43.370642718994816" lon="2.2953036249228846"><ele>526.0</ele><time>2026-04-02T07:50:47Z</time></trkpt><trkpt lat="43.370654405703526" lon="2.295445383455484"><ele>527.0</ele><time>2026-04-02T07:50:48Z</time></trkpt><trkpt lat="43.370660820389126" lon="2.2955827317381297"><ele>528.0</ele><time>2026-04-02T07:50:49Z</time></trkpt><trkpt lat="43.370657962333986" lon="2.295730987230074"><ele>529.0</ele><time>2026-04-02T07:50:50Z</time></trkpt><trkpt lat="43.370648191418276" lon="2.295855600714811"><ele>530.4</ele><time>2026-04-02T07:50:51Z</time></trkpt><trkpt lat="43.37063938514405" lon="2.2959883646017496"><ele>531.8</ele><time>2026-04-02T07:50:52Z</time></trkpt><trkpt lat="43.37062412054521" lon="2.2961028869382516"><ele>533.2</ele><time>2026-04-02T07:50:53Z</time></trkpt><trkpt lat="43.37061328562191" lon="2.296220089743409"><ele>534.6</ele><time>2026-04-02T07:50:54Z</time></trkpt><trkpt lat="43.370592242342866" lon="2.296346582494137"><ele>536.0</ele><time>2026-04-02T07:50:55Z</time></trkpt><trkpt lat="43.37056976824625" lon="2.2964877067582905"><ele>536.0</ele><time>2026-04-02T07:50:56Z</time></trkpt><trkpt lat="43.3705434615646" lon="2.2966543223513423"><ele>536.0</ele><time>2026-04-02T07:50:57Z</time></trkpt><trkpt lat="43.370538433823135" lon="2.2968535168073165"><ele>536.0</ele><time>2026-04-02T07:50:58Z</time></trkpt><trkpt lat="43.37054526789973" lon="2.297065124672034"><ele>536.0</ele><time>2026-04-02T07:50:59Z</time></trkpt><trkpt lat="43.37057226586314" lon="2.2972800595037186"><ele>536.0</ele><time>2026-04-02T07:51:00Z</time></trkpt><trkpt lat="43.370605458597666" lon="2.2975092954659746"><ele>536.0</ele><time>2026-04-02T07:51:01Z</time></trkpt><trkpt lat="43.370643299167675" lon="2.297722488336956"><ele>536.0</ele><time>2026-04-02T07:51:02Z</time></trkpt><trkpt lat="43.370698123567784" lon="2.2979207707603613"><ele>534.25</ele><time>2026-04-02T07:51:03Z</time></trkpt><trkpt lat="43.370752250871156" lon="2.2981136879381103"><ele>532.5</ele><time>2026-04-02T07:51:04Z</time></trkpt><trkpt lat="43.370785231479765" lon="2.298295456173883"><ele>530.75</ele><time>2026-04-02T07:51:05Z</time></trkpt><trkpt lat="43.37077643289251" lon="2.298484766016581"><ele>529.0</ele><time>2026-04-02T07:51:06Z</time></trkpt><trkpt lat="43.370743284262005" lon="2.2986830746712714"><ele>529.0</ele><time>2026-04-02T07:51:07Z</time></trkpt><trkpt lat="43.37068605159968" lon="2.2988673190349207"><ele>529.0</ele><time>2026-04-02T07:51:08Z</time></trkpt><trkpt lat="43.37058893458688" lon="2.299029101662708"><ele>529.0</ele><time>2026-04-02T07:51:09Z</time></trkpt><trkpt lat="43.37052194016498" lon="2.2992002337330355"><ele>529.0</ele><time>2026-04-02T07:51:10Z</time></trkpt><trkpt lat="43.37046540079401" lon="2.2994034388559643"><ele>530.0</ele><time>2026-04-02T07:51:11Z</time></trkpt><trkpt lat="43.3704529760936" lon="2.2996402389940815"><ele>531.0</ele><time>2026-04-02T07:51:12Z</time></trkpt><trkpt lat="43.37043754008294" lon="2.2998841616838446"><ele>532.0</ele><time>2026-04-02T07:51:13Z</time></trkpt><trkpt lat="43.37040524684581" lon="2.300123719489752"><ele>532.0</ele><time>2026-04-02T07:51:14Z</time></trkpt><trkpt lat="43.370347959920544" lon="2.3003602986830094"><ele>532.0</ele><time>2026-04-02T07:51:15Z</time></trkpt><trkpt lat="43.370275765996745" lon="2.3005698097458724"><ele>532.0</ele><time>2026-04-02T07:51:16Z</time></trkpt><trkpt lat="43.37022615512373" lon="2.3007119211470637"><ele>532.8000000000001</ele><time>2026-04-02T07:51:17Z</time></trkpt><trkpt lat="43.37017574904742" lon="2.300799702444729"><ele>533.6</ele><time>2026-04-02T07:51:18Z</time></trkpt><trkpt lat="43.37009503355296" lon="2.300863972660398"><ele>534.4000000000001</ele><time>2026-04-02T07:51:19Z</time></trkpt><trkpt lat="43.37000404693535" lon="2.300947248054412"><ele>535.2</ele><time>2026-04-02T07:51:20Z</time></trkpt><trkpt lat="43.36993565368664" lon="2.301099172270776"><ele>536.0</ele><time>2026-04-02T07:51:21Z</time></trkpt><trkpt lat="43.369908520356944" lon="2.301294431097351"><ele>536.3333333333333</ele><time>2026-04-02T07:51:22Z</time></trkpt><trkpt lat="43.36991599943974" lon="2.301507672014229"><ele>536.6666666666666</ele><time>2026-04-02T07:51:23Z</time></trkpt><trkpt lat="43.36991062566957" lon="2.3017251947662087"><ele>537.0</ele><time>2026-04-02T07:51:24Z</time></trkpt><trkpt lat="43.3698937841195" lon="2.3019234064922807"><ele>537.0</ele><time>2026-04-02T07:51:25Z</time></trkpt><trkpt lat="43.369896815049096" lon="2.3021166000774316"><ele>537.0</ele><time>2026-04-02T07:51:26Z</time></trkpt><trkpt lat="43.3699463308505" lon="2.302323546083159"><ele>537.0</ele><time>2026-04-02T07:51:27Z</time></trkpt><trkpt lat="43.37004143920876" lon="2.3025200983999614"><ele>539.6666666666666</ele><time>2026-04-02T07:51:28Z</time></trkpt><trkpt lat="43.37013743950829" lon="2.302714573689858"><ele>542.3333333333333</ele><time>2026-04-02T07:51:29Z</time></trkpt><trkpt lat="43.370239332747104" lon="2.302867545882595"><ele>545.0</ele><time>2026-04-02T07:51:30Z</time></trkpt><trkpt lat="43.37039665815218" lon="2.3030019605102026"><ele>543.6666666666666</ele><time>2026-04-02T07:51:31Z</time></trkpt><trkpt lat="43.37055556902235" lon="2.3031090185123495"><ele>542.3333333333334</ele><time>2026-04-02T07:51:32Z</time></trkpt><trkpt lat="43.370704900472774" lon="2.3031950040117932"><ele>541.0</ele><time>2026-04-02T07:51:33Z</time></trkpt><trkpt lat="43.37086949281707" lon="2.303248072787282"><ele>541.0</ele><time>2026-04-02T07:51:34Z</time></trkpt><trkpt lat="43.37104302878123" lon="2.3032606792954193"><ele>541.0</ele><time>2026-04-02T07:51:35Z</time></trkpt><trkpt lat="43.37122499641063" lon="2.303253673943429"><ele>541.0</ele><time>2026-04-02T07:51:36Z</time></trkpt><trkpt lat="43.37139358900219" lon="2.303251780691866"><ele>539.3333333333334</ele><time>2026-04-02T07:51:37Z</time></trkpt><trkpt lat="43.371552711914234" lon="2.3032917119114114"><ele>537.6666666666666</ele><time>2026-04-02T07:51:38Z</time></trkpt><trkpt lat="43.37169155276283" lon="2.3033403546367506"><ele>536.0</ele><time>2026-04-02T07:51:39Z</time></trkpt><trkpt lat="43.37183142094513" lon="2.303390997668642"><ele>536.0</ele><time>2026-04-02T07:51:40Z</time></trkpt><trkpt lat="43.371943441418196" lon="2.3035387615280905"><ele>536.0</ele><time>2026-04-02T07:51:41Z</time></trkpt><trkpt lat="43.37205083123616" lon="2.3036812760773366"><ele>536.0</ele><time>2026-04-02T07:51:42Z</time></trkpt><trkpt lat="43.37210341523739" lon="2.303876905169757"><ele>536.25</ele><time>2026-04-02T07:51:43Z</time></trkpt><trkpt lat="43.37214854914563" lon="2.304073240973574"><ele>536.5</ele><time>2026-04-02T07:51:44Z</time></trkpt><trkpt lat="43.372189644682884" lon="2.3042641160021464"><ele>536.75</ele><time>2026-04-02T07:51:45Z</time></trkpt><trkpt lat="43.3722307406269" lon="2.3044409906290855"><ele>537.0</ele><time>2026-04-02T07:51:46Z</time></trkpt><trkpt lat="43.37230398955751" lon="2.3045945008635806"><ele>537.0</ele><time>2026-04-02T07:51:47Z</time></trkpt><trkpt lat="43.372427186803854" lon="2.3047047302248718"><ele>537.0</ele><time>2026-04-02T07:51:48Z</time></trkpt><trkpt lat="43.37255997056457" lon="2.304786184913799"><ele>537.0</ele><time>2026-04-02T07:51:49Z</time></trkpt><trkpt lat="43.3726954274205" lon="2.3047762375598135"><ele>537.0</ele><time>2026-04-02T07:51:50Z</time></trkpt><trkpt lat="43.37285380955901" lon="2.3047321795932922"><ele>537.0</ele><time>2026-04-02T07:51:51Z</time></trkpt><trkpt lat="43.37299198689629" lon="2.3046937116034885"><ele>537.0</ele><time>2026-04-02T07:51:52Z</time></trkpt><trkpt lat="43.37313443901356" lon="2.3047190740127124"><ele>537.0</ele><time>2026-04-02T07:51:53Z</time></trkpt><trkpt lat="43.37329367019724" lon="2.304792593200831"><ele>540.3333333333334</ele><time>2026-04-02T07:51:54Z</time></trkpt><trkpt lat="43.373456471861715" lon="2.3048882810880715"><ele>543.6666666666667</ele><time>2026-04-02T07:51:55Z</time></trkpt><trkpt lat="43.37359630715889" lon="2.3049898271524945"><ele>547.0</ele><time>2026-04-02T07:51:56Z</time></trkpt><trkpt lat="43.373722567506974" lon="2.3051107894877596"><ele>547.0</ele><time>2026-04-02T07:51:57Z</time></trkpt><trkpt lat="43.37384378831044" lon="2.3052549356537195"><ele>547.0</ele><time>2026-04-02T07:51:58Z</time></trkpt><trkpt lat="43.37397668082119" lon="2.305397602889755"><ele>547.0</ele><time>2026-04-02T07:51:59Z</time></trkpt><trkpt lat="43.374100067299416" lon="2.3055246285278104"><ele>549.75</ele><time>2026-04-02T07:52:00Z</time></trkpt><trkpt lat="43.374210385596115" lon="2.305646667533012"><ele>552.5</ele><time>2026-04-02T07:52:01Z</time></trkpt><trkpt lat="43.374308476755104" lon="2.3057886445140876"><ele>555.25</ele><time>2026-04-02T07:52:02Z</time></trkpt><trkpt lat="43.374379983841045" lon="2.305960883201072"><ele>558.0</ele><time>2026-04-02T07:52:03Z</time></trkpt><trkpt lat="43.374434162925205" lon="2.3061694518532945"><ele>563.0</ele><time>2026-04-02T07:52:04Z</time></trkpt><trkpt lat="43.37447858108723" lon="2.3064115638572695"><ele>568.0</ele><time>2026-04-02T07:52:05Z</time></trkpt><trkpt lat="43.37452186801247" lon="2.306662282801495"><ele>573.0</ele><time>2026-04-02T07:52:06Z</time></trkpt><trkpt lat="43.37457134676823" lon="2.306900912645749"><ele>573.0</ele><time>2026-04-02T07:52:07Z</time></trkpt><trkpt lat="43.37461732521178" lon="2.3071259545785097"><ele>573.0</ele><time>2026-04-02T07:52:08Z</time></trkpt><trkpt lat="43.37467840771423" lon="2.3073303469551516"><ele>573.0</ele><time>2026-04-02T07:52:09Z</time></trkpt><trkpt lat="43.37477528734372" lon="2.307522827935327"><ele>565.3333333333334</ele><time>2026-04-02T07:52:10Z</time></trkpt><trkpt lat="43.374886500854515" lon="2.3077128250736876"><ele>557.6666666666667</ele><time>2026-04-02T07:52:11Z</time></trkpt><trkpt lat="43.374999406805344" lon="2.3078777260386207"><ele>550.0</ele><time>2026-04-02T07:52:12Z</time></trkpt><trkpt lat="43.37513551068575" lon="2.3080047529247913"><ele>549.3333333333334</ele><time>2026-04-02T07:52:13Z</time></trkpt><trkpt lat="43.37528605684769" lon="2.3081051701705153"><ele>548.6666666666666</ele><time>2026-04-02T07:52:14Z</time></trkpt><trkpt lat="43.37544007498819" lon="2.308203140086341"><ele>548.0</ele><time>2026-04-02T07:52:15Z</time></trkpt><trkpt lat="43.37560210135944" lon="2.3082698169159315"><ele>548.0</ele><time>2026-04-02T07:52:16Z</time></trkpt><trkpt lat="43.37577957924832" lon="2.3083058362823214"><ele>548.0</ele><time>2026-04-02T07:52:17Z</time></trkpt><trkpt lat="43.3759393530048" lon="2.3083211412735958"><ele>548.0</ele><time>2026-04-02T07:52:18Z</time></trkpt><trkpt lat="43.376087816276765" lon="2.3083331464363246"><ele>548.0</ele><time>2026-04-02T07:52:19Z</time></trkpt><trkpt lat="43.376225189125236" lon="2.3083269171643397"><ele>548.0</ele><time>2026-04-02T07:52:20Z</time></trkpt><trkpt lat="43.37635265225514" lon="2.3082960395854957"><ele>548.0</ele><time>2026-04-02T07:52:21Z</time></trkpt><trkpt lat="43.37647146534787" lon="2.30826405075443"><ele>548.0</ele><time>2026-04-02T07:52:22Z</time></trkpt><trkpt lat="43.37658360194143" lon="2.3082471266097415"><ele>547.4</ele><time>2026-04-02T07:52:23Z</time></trkpt><trkpt lat="43.376683929329886" lon="2.3082517738092863"><ele>546.8</ele><time>2026-04-02T07:52:24Z</time></trkpt><trkpt lat="43.3767748988104" lon="2.308289604792453"><ele>546.2</ele><time>2026-04-02T07:52:25Z</time></trkpt><trkpt lat="43.376855094837566" lon="2.3083431955646376"><ele>545.6</ele><time>2026-04-02T07:52:26Z</time></trkpt><trkpt lat="43.37694250301772" lon="2.3084099278939347"><ele>545.0</ele><time>2026-04-02T07:52:27Z</time></trkpt><trkpt lat="43.37704067538813" lon="2.3084898391651514"><ele>545.0</ele><time>2026-04-02T07:52:28Z</time></trkpt><trkpt lat="43.377139744138745" lon="2.3085727939017078"><ele>545.0</ele><time>2026-04-02T07:52:29Z</time></trkpt><trkpt lat="43.37723040995022" lon="2.308681708909838"><ele>545.0</ele><time>2026-04-02T07:52:30Z</time></trkpt><trkpt lat="43.377307918005265" lon="2.3087935083499986"><ele>545.0</ele><time>2026-04-02T07:52:31Z</time></trkpt><trkpt lat="43.37735815832723" lon="2.3089198628822474"><ele>545.2</ele><time>2026-04-02T07:52:32Z</time></trkpt><trkpt lat="43.37738588115733" lon="2.3090544415310634"><ele>545.4</ele><time>2026-04-02T07:52:33Z</time></trkpt><trkpt lat="43.37740666319391" lon="2.3091803482096642"><ele>545.6</ele><time>2026-04-02T07:52:34Z</time></trkpt><trkpt lat="43.37746431829356" lon="2.309284144876604"><ele>545.8</ele><time>2026-04-02T07:52:35Z</time></trkpt><trkpt lat="43.3775364616964" lon="2.3093616183643393"><ele>546.0</ele><time>2026-04-02T07:52:36Z</time></trkpt><trkpt lat="43.37759329669906" lon="2.3094393224860257"><ele>546.0</ele><time>2026-04-02T07:52:37Z</time></trkpt><trkpt lat="43.37764591279798" lon="2.309508834638523"><ele>546.0</ele><time>2026-04-02T07:52:38Z</time></trkpt><trkpt lat="43.37771097858431" lon="2.30958277954175"><ele>546.0</ele><time>2026-04-02T07:52:40Z</time></trkpt><trkpt lat="43.37777363756498" lon="2.3096031070798366"><ele>546.0</ele><time>2026-04-02T07:52:44Z</time></trkpt><trkpt lat="43.37770611883981" lon="2.309588264045104"><ele>546.0</ele><time>2026-04-02T07:54:23Z</time></trkpt><trkpt lat="43.377661521598235" lon="2.3095267404002287"><ele>546.0</ele><time>2026-04-02T07:57:04Z</time></trkpt><trkpt lat="43.37772695238713" lon="2.3095810740091913"><ele>546.0</ele><time>2026-04-02T08:00:17Z</time></trkpt><trkpt lat="43.377813906605674" lon="2.309569833078466"><ele>546.0</ele><time>2026-04-02T08:00:18Z</time></trkpt><trkpt lat="43.377878629795944" lon="2.3095458331560357"><ele>546.0</ele><time>2026-04-02T08:00:19Z</time></trkpt><trkpt lat="43.37799841967944" lon="2.309513925634691"><ele>546.0</ele><time>2026-04-02T08:00:21Z</time></trkpt><trkpt lat="43.378065374802055" lon="2.3095103928125242"><ele>546.0</ele><time>2026-04-02T08:00:22Z</time></trkpt><trkpt lat="43.378138090888235" lon="2.3095070293612867"><ele>546.0</ele><time>2026-04-02T08:00:23Z</time></trkpt><trkpt lat="43.37820831554937" lon="2.309450527836624"><ele>546.0</ele><time>2026-04-02T08:00:24Z</time></trkpt><trkpt lat="43.37827993379313" lon="2.30944164905159"><ele>546.2</ele><time>2026-04-02T08:00:25Z</time></trkpt><trkpt lat="43.378353134749105" lon="2.309414898766964"><ele>546.4000000000001</ele><time>2026-04-02T08:00:26Z</time></trkpt><trkpt lat="43.37842906685485" lon="2.3093521293756916"><ele>546.6</ele><time>2026-04-02T08:00:27Z</time></trkpt><trkpt lat="43.37852671284678" lon="2.309270532914469"><ele>546.8000000000001</ele><time>2026-04-02T08:00:28Z</time></trkpt><trkpt lat="43.37860167795432" lon="2.30914859341303"><ele>547.0</ele><time>2026-04-02T08:00:29Z</time></trkpt><trkpt lat="43.37866210862144" lon="2.309024236365435"><ele>547.0</ele><time>2026-04-02T08:00:30Z</time></trkpt><trkpt lat="43.37872963300615" lon="2.3089129781252824"><ele>547.0</ele><time>2026-04-02T08:00:31Z</time></trkpt><trkpt lat="43.378815592480386" lon="2.3088503727347947"><ele>547.0</ele><time>2026-04-02T08:00:32Z</time></trkpt><trkpt lat="43.378899346554384" lon="2.3087892831664503"><ele>547.0</ele><time>2026-04-02T08:00:33Z</time></trkpt><trkpt lat="43.37897265749188" lon="2.3087418028867224"><ele>547.0</ele><time>2026-04-02T08:00:34Z</time></trkpt><trkpt lat="43.379035257583034" lon="2.3087109397237295"><ele>547.0</ele><time>2026-04-02T08:00:35Z</time></trkpt><trkpt lat="43.37909717384994" lon="2.308686751907577"><ele>552.0</ele><time>2026-04-02T08:00:36Z</time></trkpt><trkpt lat="43.37920869703316" lon="2.3086001235201143"><ele>557.0</ele><time>2026-04-02T08:00:38Z</time></trkpt><trkpt lat="43.37927839956357" lon="2.3085666816444164"><ele>562.0</ele><time>2026-04-02T08:00:39Z</time></trkpt><trkpt lat="43.379346931944994" lon="2.308520632878673"><ele>567.0</ele><time>2026-04-02T08:00:40Z</time></trkpt><trkpt lat="43.37942210187057" lon="2.3084681330388435"><ele>572.0</ele><time>2026-04-02T08:00:41Z</time></trkpt><trkpt lat="43.37951008384841" lon="2.3084422595727556"><ele>572.0</ele><time>2026-04-02T08:00:42Z</time></trkpt><trkpt lat="43.37959067567741" lon="2.3083907853890544"><ele>572.0</ele><time>2026-04-02T08:00:43Z</time></trkpt><trkpt lat="43.37968250399506" lon="2.3083578889267575"><ele>572.0</ele><time>2026-04-02T08:00:44Z</time></trkpt><trkpt lat="43.379777789784406" lon="2.308334557359614"><ele>572.0</ele><time>2026-04-02T08:00:45Z</time></trkpt><trkpt lat="43.37987764761866" lon="2.308334187072768"><ele>572.0</ele><time>2026-04-02T08:00:46Z</time></trkpt><trkpt lat="43.37998520200748" lon="2.308345335811886"><ele>570.6</ele><time>2026-04-02T08:00:47Z</time></trkpt><trkpt lat="43.38009796642527" lon="2.308357950733326"><ele>569.2</ele><time>2026-04-02T08:00:48Z</time></trkpt><trkpt lat="43.380206592428" lon="2.3083789471204117"><ele>567.8</ele><time>2026-04-02T08:00:49Z</time></trkpt><trkpt lat="43.38028779051994" lon="2.30846224431636"><ele>566.4</ele><time>2026-04-02T08:00:50Z</time></trkpt><trkpt lat="43.38037709931715" lon="2.308547488220007"><ele>565.0</ele><time>2026-04-02T08:00:51Z</time></trkpt><trkpt lat="43.38046146302643" lon="2.308633111732758"><ele>563.8</ele><time>2026-04-02T08:00:52Z</time></trkpt><trkpt lat="43.38054307725879" lon="2.3087118603477004"><ele>562.6</ele><time>2026-04-02T08:00:53Z</time></trkpt><trkpt lat="43.38063734307102" lon="2.3087783987765786"><ele>561.4</ele><time>2026-04-02T08:00:54Z</time></trkpt><trkpt lat="43.3807331314837" lon="2.3088217867020817"><ele>560.2</ele><time>2026-04-02T08:00:55Z</time></trkpt><trkpt lat="43.380821631732196" lon="2.3088833195216014"><ele>559.0</ele><time>2026-04-02T08:00:56Z</time></trkpt><trkpt lat="43.380907961518034" lon="2.308953942349995"><ele>559.0</ele><time>2026-04-02T08:00:57Z</time></trkpt><trkpt lat="43.38099582232632" lon="2.3090260589509577"><ele>559.0</ele><time>2026-04-02T08:00:58Z</time></trkpt><trkpt lat="43.38106909625524" lon="2.309101257914858"><ele>559.0</ele><time>2026-04-02T08:00:59Z</time></trkpt><trkpt lat="43.381169076235835" lon="2.3091813975407547"><ele>559.0</ele><time>2026-04-02T08:01:00Z</time></trkpt><trkpt lat="43.381270959335346" lon="2.3092742590859645"><ele>559.0</ele><time>2026-04-02T08:01:01Z</time></trkpt><trkpt lat="43.381369054231726" lon="2.309360360870361"><ele>559.6</ele><time>2026-04-02T08:01:02Z</time></trkpt><trkpt lat="43.38146740516572" lon="2.309450861435398"><ele>560.2</ele><time>2026-04-02T08:01:03Z</time></trkpt><trkpt lat="43.3815433472708" lon="2.3095478943811347"><ele>560.8000000000001</ele><time>2026-04-02T08:01:04Z</time></trkpt><trkpt lat="43.381601414628236" lon="2.3096685822479923"><ele>561.4</ele><time>2026-04-02T08:01:05Z</time></trkpt><trkpt lat="43.38164552957451" lon="2.3097907799251463"><ele>562.0</ele><time>2026-04-02T08:01:06Z</time></trkpt><trkpt lat="43.38169589097434" lon="2.309900015134403"><ele>562.0</ele><time>2026-04-02T08:01:07Z</time></trkpt><trkpt lat="43.38175359768096" lon="2.3100021252044622"><ele>562.0</ele><time>2026-04-02T08:01:08Z</time></trkpt><trkpt lat="43.38182247803447" lon="2.3100870060855856"><ele>562.0</ele><time>2026-04-02T08:01:09Z</time></trkpt><trkpt lat="43.381909228092084" lon="2.3101634207219135"><ele>562.0</ele><time>2026-04-02T08:01:10Z</time></trkpt><trkpt lat="43.38202526851969" lon="2.310230254436862"><ele>562.0</ele><time>2026-04-02T08:01:11Z</time></trkpt><trkpt lat="43.38216056428125" lon="2.310283868433537"><ele>567.6666666666667</ele><time>2026-04-02T08:01:12Z</time></trkpt><trkpt lat="43.382306987149526" lon="2.3103446856701964"><ele>573.3333333333334</ele><time>2026-04-02T08:01:13Z</time></trkpt><trkpt lat="43.38246101566003" lon="2.3104061882905076"><ele>579.0</ele><time>2026-04-02T08:01:14Z</time></trkpt><trkpt lat="43.38261302826534" lon="2.310469185762438"><ele>579.0</ele><time>2026-04-02T08:01:15Z</time></trkpt><trkpt lat="43.38276316625644" lon="2.3105267309902997"><ele>579.0</ele><time>2026-04-02T08:01:16Z</time></trkpt><trkpt lat="43.38291336765666" lon="2.310564240087837"><ele>579.0</ele><time>2026-04-02T08:01:17Z</time></trkpt><trkpt lat="43.38307358243829" lon="2.3105788684627666"><ele>581.25</ele><time>2026-04-02T08:01:18Z</time></trkpt><trkpt lat="43.38323196110143" lon="2.310578409309539"><ele>583.5</ele><time>2026-04-02T08:01:19Z</time></trkpt><trkpt lat="43.38337854583677" lon="2.3105706636732055"><ele>585.75</ele><time>2026-04-02T08:01:20Z</time></trkpt><trkpt lat="43.383506981991836" lon="2.310560608236511"><ele>588.0</ele><time>2026-04-02T08:01:21Z</time></trkpt><trkpt lat="43.383627034771656" lon="2.3105316997576613"><ele>588.0</ele><time>2026-04-02T08:01:22Z</time></trkpt><trkpt lat="43.38375174412897" lon="2.3104737130502513"><ele>588.0</ele><time>2026-04-02T08:01:23Z</time></trkpt><trkpt lat="43.38387925539942" lon="2.3103777770055802"><ele>588.0</ele><time>2026-04-02T08:01:24Z</time></trkpt><trkpt lat="43.38402866524052" lon="2.3102975237149335"><ele>588.0</ele><time>2026-04-02T08:01:25Z</time></trkpt><trkpt lat="43.38418661985721" lon="2.3101778583035917"><ele>584.6666666666666</ele><time>2026-04-02T08:01:26Z</time></trkpt><trkpt lat="43.38434306476972" lon="2.310027824609235"><ele>581.3333333333333</ele><time>2026-04-02T08:01:27Z</time></trkpt><trkpt lat="43.38449774713201" lon="2.309869425935637"><ele>578.0</ele><time>2026-04-02T08:01:28Z</time></trkpt><trkpt lat="43.384645541833954" lon="2.3097303113602585"><ele>585.3333333333333</ele><time>2026-04-02T08:01:29Z</time></trkpt><trkpt lat="43.38480434415509" lon="2.309620694533427"><ele>592.6666666666666</ele><time>2026-04-02T08:01:30Z</time></trkpt><trkpt lat="43.384971315929214" lon="2.3095462252604966"><ele>600.0</ele><time>2026-04-02T08:01:31Z</time></trkpt><trkpt lat="43.38514501139842" lon="2.3094696356149975"><ele>600.0</ele><time>2026-04-02T08:01:32Z</time></trkpt><trkpt lat="43.385317801894786" lon="2.309411782051411"><ele>600.0</ele><time>2026-04-02T08:01:33Z</time></trkpt><trkpt lat="43.3854830562393" lon="2.3093468128450105"><ele>600.0</ele><time>2026-04-02T08:01:34Z</time></trkpt><trkpt lat="43.38564593887861" lon="2.309288271898693"><ele>596.3333333333334</ele><time>2026-04-02T08:01:35Z</time></trkpt><trkpt lat="43.38579823584819" lon="2.3092513303901505"><ele>592.6666666666667</ele><time>2026-04-02T08:01:36Z</time></trkpt><trkpt lat="43.38595399506451" lon="2.309278152560076"><ele>589.0</ele><time>2026-04-02T08:01:37Z</time></trkpt><trkpt lat="43.38611279506973" lon="2.3092863454452277"><ele>589.0</ele><time>2026-04-02T08:01:38Z</time></trkpt><trkpt lat="43.386268998551856" lon="2.3093340977246166"><ele>589.0</ele><time>2026-04-02T08:01:39Z</time></trkpt><trkpt lat="43.386409051965" lon="2.3093555172912446"><ele>589.0</ele><time>2026-04-02T08:01:40Z</time></trkpt><trkpt lat="43.386531209142426" lon="2.309331571887143"><ele>589.0</ele><time>2026-04-02T08:01:41Z</time></trkpt><trkpt lat="43.38664724203351" lon="2.3092637734171677"><ele>587.75</ele><time>2026-04-02T08:01:42Z</time></trkpt><trkpt lat="43.38675164244872" lon="2.309154610926099"><ele>586.5</ele><time>2026-04-02T08:01:43Z</time></trkpt><trkpt lat="43.38687687259567" lon="2.3090463781965997"><ele>585.25</ele><time>2026-04-02T08:01:44Z</time></trkpt><trkpt lat="43.387002444013305" lon="2.308905316195846"><ele>584.0</ele><time>2026-04-02T08:01:45Z</time></trkpt><trkpt lat="43.38713682192732" lon="2.3087874925122405"><ele>586.6666666666666</ele><time>2026-04-02T08:01:46Z</time></trkpt><trkpt lat="43.38728029805478" lon="2.308683783167562"><ele>589.3333333333334</ele><time>2026-04-02T08:01:47Z</time></trkpt><trkpt lat="43.387429645817306" lon="2.30860783184555"><ele>592.0</ele><time>2026-04-02T08:01:48Z</time></trkpt><trkpt lat="43.3875649986389" lon="2.3085247615150037"><ele>592.0</ele><time>2026-04-02T08:01:49Z</time></trkpt><trkpt lat="43.38769730944926" lon="2.3084190827653908"><ele>592.0</ele><time>2026-04-02T08:01:50Z</time></trkpt><trkpt lat="43.38780539094248" lon="2.3083102250329928"><ele>592.0</ele><time>2026-04-02T08:01:51Z</time></trkpt><trkpt lat="43.38791118977378" lon="2.3081808614787964"><ele>592.0</ele><time>2026-04-02T08:01:52Z</time></trkpt><trkpt lat="43.387999300824035" lon="2.30802204404021"><ele>590.0</ele><time>2026-04-02T08:01:53Z</time></trkpt><trkpt lat="43.38806862827631" lon="2.307851127675301"><ele>588.0</ele><time>2026-04-02T08:01:54Z</time></trkpt><trkpt lat="43.3881129829862" lon="2.3076733847896764"><ele>586.0</ele><time>2026-04-02T08:01:55Z</time></trkpt><trkpt lat="43.388131607282915" lon="2.3074927599422597"><ele>584.0</ele><time>2026-04-02T08:01:56Z</time></trkpt><trkpt lat="43.3881235681771" lon="2.3072990817944623"><ele>585.0</ele><time>2026-04-02T08:01:57Z</time></trkpt><trkpt lat="43.388102902594454" lon="2.3070840916248896"><ele>586.0</ele><time>2026-04-02T08:01:58Z</time></trkpt><trkpt lat="43.38808087668593" lon="2.306853801700484"><ele>587.0</ele><time>2026-04-02T08:01:59Z</time></trkpt><trkpt lat="43.388058114006014" lon="2.306615808531162"><ele>589.3333333333333</ele><time>2026-04-02T08:02:00Z</time></trkpt><trkpt lat="43.388025179462744" lon="2.3063834773100833"><ele>591.6666666666666</ele><time>2026-04-02T08:02:01Z</time></trkpt><trkpt lat="43.388030627383515" lon="2.306149613892254"><ele>594.0</ele><time>2026-04-02T08:02:02Z</time></trkpt><trkpt lat="43.388054056951844" lon="2.3059281167382477"><ele>594.0</ele><time>2026-04-02T08:02:03Z</time></trkpt><trkpt lat="43.38808358562547" lon="2.305708849612904"><ele>594.0</ele><time>2026-04-02T08:02:04Z</time></trkpt><trkpt lat="43.38812928084703" lon="2.3055024564997857"><ele>594.0</ele><time>2026-04-02T08:02:05Z</time></trkpt><trkpt lat="43.3881972408312" lon="2.3053005448598785"><ele>600.6666666666666</ele><time>2026-04-02T08:02:06Z</time></trkpt><trkpt lat="43.38828789584359" lon="2.3051310363506174"><ele>607.3333333333333</ele><time>2026-04-02T08:02:07Z</time></trkpt><trkpt lat="43.38838869927899" lon="2.304971994198055"><ele>614.0</ele><time>2026-04-02T08:02:08Z</time></trkpt><trkpt lat="43.38851077446915" lon="2.3048316818756907"><ele>613.3333333333333</ele><time>2026-04-02T08:02:09Z</time></trkpt><trkpt lat="43.38865277889294" lon="2.304685718142802"><ele>612.6666666666666</ele><time>2026-04-02T08:02:10Z</time></trkpt><trkpt lat="43.38878974367722" lon="2.3045284067531773"><ele>612.0</ele><time>2026-04-02T08:02:11Z</time></trkpt><trkpt lat="43.388900162307685" lon="2.304382253546786"><ele>612.0</ele><time>2026-04-02T08:02:12Z</time></trkpt><trkpt lat="43.38900222936268" lon="2.3042463172459957"><ele>612.0</ele><time>2026-04-02T08:02:13Z</time></trkpt><trkpt lat="43.389092260436065" lon="2.304131973948047"><ele>612.0</ele><time>2026-04-02T08:02:14Z</time></trkpt><trkpt lat="43.389174709098455" lon="2.304051071168863"><ele>612.0</ele><time>2026-04-02T08:02:15Z</time></trkpt><trkpt lat="43.389268651878595" lon="2.304033422338252"><ele>612.0</ele><time>2026-04-02T08:02:16Z</time></trkpt><trkpt lat="43.38937639778909" lon="2.3040939084342416"><ele>612.0</ele><time>2026-04-02T08:02:17Z</time></trkpt><trkpt lat="43.38948440578462" lon="2.3041568487480255"><ele>612.0</ele><time>2026-04-02T08:02:18Z</time></trkpt><trkpt lat="43.38960788568621" lon="2.3041701000769526"><ele>612.0</ele><time>2026-04-02T08:02:19Z</time></trkpt><trkpt lat="43.38976349215372" lon="2.3041473040241027"><ele>613.0</ele><time>2026-04-02T08:02:20Z</time></trkpt><trkpt lat="43.389916033902665" lon="2.3041192791031913"><ele>614.0</ele><time>2026-04-02T08:02:21Z</time></trkpt><trkpt lat="43.390056968301366" lon="2.3041573450710966"><ele>615.0</ele><time>2026-04-02T08:02:22Z</time></trkpt><trkpt lat="43.39020147202539" lon="2.304232691636979"><ele>615.0</ele><time>2026-04-02T08:02:23Z</time></trkpt><trkpt lat="43.390343864378366" lon="2.3042979985683405"><ele>615.0</ele><time>2026-04-02T08:02:24Z</time></trkpt><trkpt lat="43.39049019224591" lon="2.304324861508862"><ele>615.0</ele><time>2026-04-02T08:02:25Z</time></trkpt><trkpt lat="43.390646947559404" lon="2.3043220370494515"><ele>616.6666666666666</ele><time>2026-04-02T08:02:26Z</time></trkpt><trkpt lat="43.39080402121675" lon="2.3043072250627934"><ele>618.3333333333333</ele><time>2026-04-02T08:02:27Z</time></trkpt><trkpt lat="43.39095645998274" lon="2.304285580146932"><ele>620.0</ele><time>2026-04-02T08:02:28Z</time></trkpt><trkpt lat="43.39110482683649" lon="2.3042519717181773"><ele>620.0</ele><time>2026-04-02T08:02:29Z</time></trkpt><trkpt lat="43.39124069567596" lon="2.3042044848414083"><ele>620.0</ele><time>2026-04-02T08:02:30Z</time></trkpt><trkpt lat="43.39135568413724" lon="2.304144779716173"><ele>620.0</ele><time>2026-04-02T08:02:31Z</time></trkpt><trkpt lat="43.39146230646692" lon="2.3040656210863015"><ele>620.0</ele><time>2026-04-02T08:02:32Z</time></trkpt><trkpt lat="43.391553835582876" lon="2.303964252841745"><ele>621.75</ele><time>2026-04-02T08:02:33Z</time></trkpt><trkpt lat="43.391625973933834" lon="2.303824740924505"><ele>623.5</ele><time>2026-04-02T08:02:34Z</time></trkpt><trkpt lat="43.39168678033259" lon="2.3036543294931615"><ele>625.25</ele><time>2026-04-02T08:02:35Z</time></trkpt><trkpt lat="43.391758063149" lon="2.30349343793903"><ele>627.0</ele><time>2026-04-02T08:02:36Z</time></trkpt><trkpt lat="43.39181981467257" lon="2.303347446280083"><ele>627.0</ele><time>2026-04-02T08:02:37Z</time></trkpt><trkpt lat="43.39183017563766" lon="2.3031635323605553"><ele>627.0</ele><time>2026-04-02T08:02:38Z</time></trkpt><trkpt lat="43.39182747595462" lon="2.3029967228400183"><ele>627.0</ele><time>2026-04-02T08:02:39Z</time></trkpt><trkpt lat="43.39185061846467" lon="2.302854524562325"><ele>627.0</ele><time>2026-04-02T08:02:40Z</time></trkpt><trkpt lat="43.39193229070385" lon="2.302740408724829"><ele>623.25</ele><time>2026-04-02T08:02:41Z</time></trkpt><trkpt lat="43.39201919968356" lon="2.30260923951568"><ele>619.5</ele><time>2026-04-02T08:02:42Z</time></trkpt><trkpt lat="43.392096369395944" lon="2.302435586149422"><ele>615.75</ele><time>2026-04-02T08:02:43Z</time></trkpt><trkpt lat="43.39217739733048" lon="2.3022593585916606"><ele>612.0</ele><time>2026-04-02T08:02:44Z</time></trkpt><trkpt lat="43.392276333464615" lon="2.30208529833335"><ele>623.0</ele><time>2026-04-02T08:02:45Z</time></trkpt><trkpt lat="43.392400991185596" lon="2.3019380957534095"><ele>634.0</ele><time>2026-04-02T08:02:46Z</time></trkpt><trkpt lat="43.39254378696357" lon="2.3018191225989133"><ele>645.0</ele><time>2026-04-02T08:02:47Z</time></trkpt><trkpt lat="43.39269105954088" lon="2.301722741275391"><ele>645.0</ele><time>2026-04-02T08:02:48Z</time></trkpt><trkpt lat="43.39284554266809" lon="2.3016582999572184"><ele>645.0</ele><time>2026-04-02T08:02:49Z</time></trkpt><trkpt lat="43.39301027950617" lon="2.301633405058219"><ele>645.0</ele><time>2026-04-02T08:02:50Z</time></trkpt><trkpt lat="43.393166987800754" lon="2.3016203948525105"><ele>647.0</ele><time>2026-04-02T08:02:51Z</time></trkpt><trkpt lat="43.3933017287452" lon="2.301598124543479"><ele>649.0</ele><time>2026-04-02T08:02:52Z</time></trkpt><trkpt lat="43.39342658800349" lon="2.3015486304097816"><ele>651.0</ele><time>2026-04-02T08:02:53Z</time></trkpt><trkpt lat="43.39354167259064" lon="2.301464242413448"><ele>653.0</ele><time>2026-04-02T08:02:54Z</time></trkpt><trkpt lat="43.393643408681186" lon="2.301354738910039"><ele>653.0</ele><time>2026-04-02T08:02:55Z</time></trkpt><trkpt lat="43.39373357469952" lon="2.301277230282927"><ele>653.0</ele><time>2026-04-02T08:02:56Z</time></trkpt><trkpt lat="43.39381209508845" lon="2.3012533632053143"><ele>653.0</ele><time>2026-04-02T08:02:57Z</time></trkpt><trkpt lat="43.393872108415515" lon="2.3012926151444706"><ele>653.0</ele><time>2026-04-02T08:02:58Z</time></trkpt><trkpt lat="43.39392080009591" lon="2.301377841331835"><ele>653.0</ele><time>2026-04-02T08:02:59Z</time></trkpt><trkpt lat="43.393985096323185" lon="2.301507277855031"><ele>653.0</ele><time>2026-04-02T08:03:00Z</time></trkpt><trkpt lat="43.3940502100024" lon="2.3016323733900483"><ele>648.6</ele><time>2026-04-02T08:03:01Z</time></trkpt><trkpt lat="43.39412310129916" lon="2.30173612967396"><ele>644.1999999999999</ele><time>2026-04-02T08:03:02Z</time></trkpt><trkpt lat="43.39421501142125" lon="2.3017865989826807"><ele>639.8</ele><time>2026-04-02T08:03:03Z</time></trkpt><trkpt lat="43.39432220437869" lon="2.3017726293923597"><ele>635.4</ele><time>2026-04-02T08:03:04Z</time></trkpt><trkpt lat="43.3944389122191" lon="2.3017103440498636"><ele>631.0</ele><time>2026-04-02T08:03:05Z</time></trkpt><trkpt lat="43.39458025901293" lon="2.301636856371623"><ele>633.3333333333334</ele><time>2026-04-02T08:03:06Z</time></trkpt><trkpt lat="43.394749012374646" lon="2.3015739672188915"><ele>635.6666666666666</ele><time>2026-04-02T08:03:07Z</time></trkpt><trkpt lat="43.394924354110856" lon="2.301522384657146"><ele>638.0</ele><time>2026-04-02T08:03:08Z</time></trkpt><trkpt lat="43.395106476000166" lon="2.301473004577001"><ele>638.0</ele><time>2026-04-02T08:03:09Z</time></trkpt><trkpt lat="43.395288255777224" lon="2.3014264804501083"><ele>638.0</ele><time>2026-04-02T08:03:10Z</time></trkpt><trkpt lat="43.3954692800486" lon="2.3013779917012176"><ele>638.0</ele><time>2026-04-02T08:03:11Z</time></trkpt><trkpt lat="43.395648563116325" lon="2.301331954089568"><ele>647.0</ele><time>2026-04-02T08:03:12Z</time></trkpt><trkpt lat="43.395824594084296" lon="2.301298620002282"><ele>656.0</ele><time>2026-04-02T08:03:13Z</time></trkpt><trkpt lat="43.39598976607506" lon="2.301285277133177"><ele>665.0</ele><time>2026-04-02T08:03:14Z</time></trkpt><trkpt lat="43.396128816409" lon="2.301294715950461"><ele>665.0</ele><time>2026-04-02T08:03:15Z</time></trkpt><trkpt lat="43.39622762344105" lon="2.3013025056007588"><ele>665.0</ele><time>2026-04-02T08:03:16Z</time></trkpt><trkpt lat="43.39630549364819" lon="2.3012857338450416"><ele>665.0</ele><time>2026-04-02T08:03:17Z</time></trkpt><trkpt lat="43.39638046395065" lon="2.3012220103467573"><ele>665.0</ele><time>2026-04-02T08:03:18Z</time></trkpt><trkpt lat="43.396437623343644" lon="2.3011042667632315"><ele>665.0</ele><time>2026-04-02T08:03:19Z</time></trkpt><trkpt lat="43.39644956452312" lon="2.300984895448227"><ele>665.0</ele><time>2026-04-02T08:03:20Z</time></trkpt><trkpt lat="43.39642034174428" lon="2.3008837847987893"><ele>665.0</ele><time>2026-04-02T08:03:21Z</time></trkpt><trkpt lat="43.396344609710276" lon="2.300815237649953"><ele>665.0</ele><time>2026-04-02T08:03:22Z</time></trkpt><trkpt lat="43.396251108913354" lon="2.30071227069945"><ele>665.0</ele><time>2026-04-02T08:03:23Z</time></trkpt><trkpt lat="43.396193430282814" lon="2.3005781075214498"><ele>665.0</ele><time>2026-04-02T08:03:24Z</time></trkpt><trkpt lat="43.396161463859514" lon="2.3004288604672145"><ele>670.0</ele><time>2026-04-02T08:03:25Z</time></trkpt><trkpt lat="43.39614393849598" lon="2.30026130877046"><ele>675.0</ele><time>2026-04-02T08:03:26Z</time></trkpt><trkpt lat="43.39614279564064" lon="2.3000812871694327"><ele>680.0</ele><time>2026-04-02T08:03:27Z</time></trkpt><trkpt lat="43.39615318484607" lon="2.2998929404113997"><ele>685.0</ele><time>2026-04-02T08:03:28Z</time></trkpt><trkpt lat="43.39618577390597" lon="2.299700964635082"><ele>690.0</ele><time>2026-04-02T08:03:29Z</time></trkpt><trkpt lat="43.39624065559072" lon="2.299512937072681"><ele>695.0</ele><time>2026-04-02T08:03:30Z</time></trkpt><trkpt lat="43.3962903873357" lon="2.299338579084844"><ele>700.0</ele><time>2026-04-02T08:03:31Z</time></trkpt><trkpt lat="43.396345129244864" lon="2.299204279132723"><ele>705.0</ele><time>2026-04-02T08:03:32Z</time></trkpt><trkpt lat="43.396415015815045" lon="2.2991021889636967"><ele>697.75</ele><time>2026-04-02T08:03:33Z</time></trkpt><trkpt lat="43.396511224221506" lon="2.2990238368947566"><ele>690.5</ele><time>2026-04-02T08:03:34Z</time></trkpt><trkpt lat="43.396616867100974" lon="2.2989476183024418"><ele>683.25</ele><time>2026-04-02T08:03:35Z</time></trkpt><trkpt lat="43.396720318983654" lon="2.2988505505799495"><ele>676.0</ele><time>2026-04-02T08:03:36Z</time></trkpt><trkpt lat="43.39680898271183" lon="2.298722321040601"><ele>676.0</ele><time>2026-04-02T08:03:37Z</time></trkpt><trkpt lat="43.39687024607959" lon="2.2985586023148947"><ele>676.0</ele><time>2026-04-02T08:03:38Z</time></trkpt><trkpt lat="43.39692687000076" lon="2.2983927371199524"><ele>676.0</ele><time>2026-04-02T08:03:39Z</time></trkpt><trkpt lat="43.396958444954144" lon="2.298263924716073"><ele>676.0</ele><time>2026-04-02T08:03:40Z</time></trkpt><trkpt lat="43.39696640650488" lon="2.29813969309683"><ele>680.0</ele><time>2026-04-02T08:03:41Z</time></trkpt><trkpt lat="43.39694910217224" lon="2.297983920238401"><ele>684.0</ele><time>2026-04-02T08:03:42Z</time></trkpt><trkpt lat="43.39694347802853" lon="2.2978225286356917"><ele>688.0</ele><time>2026-04-02T08:03:43Z</time></trkpt><trkpt lat="43.39697575618255" lon="2.297669295641127"><ele>692.0</ele><time>2026-04-02T08:03:44Z</time></trkpt><trkpt lat="43.39702864134643" lon="2.2975221621076916"><ele>692.0</ele><time>2026-04-02T08:03:45Z</time></trkpt><trkpt lat="43.39707474707844" lon="2.297388619066028"><ele>692.0</ele><time>2026-04-02T08:03:46Z</time></trkpt><trkpt lat="43.39710711750507" lon="2.297234485305903"><ele>692.0</ele><time>2026-04-02T08:03:47Z</time></trkpt><trkpt lat="43.39713310330438" lon="2.2971224694706205"><ele>692.0</ele><time>2026-04-02T08:03:48Z</time></trkpt><trkpt lat="43.39721085850004" lon="2.2969992675562287"><ele>692.0</ele><time>2026-04-02T08:03:50Z</time></trkpt><trkpt lat="43.39728499342363" lon="2.2969674843195302"><ele>687.75</ele><time>2026-04-02T08:03:51Z</time></trkpt><trkpt lat="43.397387161518324" lon="2.296932501735461"><ele>683.5</ele><time>2026-04-02T08:03:52Z</time></trkpt><trkpt lat="43.397505357805684" lon="2.296917198048089"><ele>679.25</ele><time>2026-04-02T08:03:53Z</time></trkpt><trkpt lat="43.39763319351984" lon="2.296910822509506"><ele>675.0</ele><time>2026-04-02T08:03:54Z</time></trkpt><trkpt lat="43.39773105408069" lon="2.2968849785832632"><ele>675.0</ele><time>2026-04-02T08:03:55Z</time></trkpt><trkpt lat="43.39780688158785" lon="2.2968008177113566"><ele>675.0</ele><time>2026-04-02T08:03:56Z</time></trkpt><trkpt lat="43.39785871617871" lon="2.2966577541008184"><ele>675.0</ele><time>2026-04-02T08:03:57Z</time></trkpt><trkpt lat="43.39791272962813" lon="2.2964826222299477"><ele>675.0</ele><time>2026-04-02T08:03:58Z</time></trkpt><trkpt lat="43.39798526680487" lon="2.2963002883479753"><ele>670.3333333333334</ele><time>2026-04-02T08:03:59Z</time></trkpt><trkpt lat="43.3980681350901" lon="2.2961137516058097"><ele>665.6666666666667</ele><time>2026-04-02T08:04:00Z</time></trkpt><trkpt lat="43.39814950082406" lon="2.2959412008472277"><ele>661.0</ele><time>2026-04-02T08:04:01Z</time></trkpt><trkpt lat="43.398234616338584" lon="2.2957564203433702"><ele>667.75</ele><time>2026-04-02T08:04:02Z</time></trkpt><trkpt lat="43.398328204281746" lon="2.2955599932865973"><ele>674.5</ele><time>2026-04-02T08:04:03Z</time></trkpt><trkpt lat="43.39840860534211" lon="2.2953902506647643"><ele>681.25</ele><time>2026-04-02T08:04:04Z</time></trkpt><trkpt lat="43.398487180425164" lon="2.2952531105748957"><ele>688.0</ele><time>2026-04-02T08:04:05Z</time></trkpt><trkpt lat="43.3985772657837" lon="2.29513694590927"><ele>688.0</ele><time>2026-04-02T08:04:06Z</time></trkpt><trkpt lat="43.39868436467455" lon="2.2950304555307133"><ele>688.0</ele><time>2026-04-02T08:04:07Z</time></trkpt><trkpt lat="43.39882596160246" lon="2.2949220840060405"><ele>688.0</ele><time>2026-04-02T08:04:08Z</time></trkpt><trkpt lat="43.39895567379527" lon="2.2947897975831415"><ele>685.0</ele><time>2026-04-02T08:04:09Z</time></trkpt><trkpt lat="43.399074104370854" lon="2.29463064965277"><ele>682.0</ele><time>2026-04-02T08:04:10Z</time></trkpt><trkpt lat="43.39920039054067" lon="2.2944605528413264"><ele>679.0</ele><time>2026-04-02T08:04:11Z</time></trkpt><trkpt lat="43.39933364190544" lon="2.2943200076667907"><ele>679.0</ele><time>2026-04-02T08:04:12Z</time></trkpt><trkpt lat="43.399473260772545" lon="2.294210475644775"><ele>679.0</ele><time>2026-04-02T08:04:13Z</time></trkpt><trkpt lat="43.3995832767989" lon="2.2941269567150075"><ele>679.0</ele><time>2026-04-02T08:04:14Z</time></trkpt><trkpt lat="43.39965936034064" lon="2.294042603205521"><ele>679.0</ele><time>2026-04-02T08:04:15Z</time></trkpt><trkpt lat="43.39969276097527" lon="2.293920338770557"><ele>683.5</ele><time>2026-04-02T08:04:16Z</time></trkpt><trkpt lat="43.399694403652916" lon="2.2937865950482026"><ele>688.0</ele><time>2026-04-02T08:04:17Z</time></trkpt><trkpt lat="43.39967305089825" lon="2.2936309473394734"><ele>692.5</ele><time>2026-04-02T08:04:18Z</time></trkpt><trkpt lat="43.39965657981732" lon="2.2934511665517774"><ele>697.0</ele><time>2026-04-02T08:04:19Z</time></trkpt><trkpt lat="43.39964232758484" lon="2.2932432349779"><ele>698.75</ele><time>2026-04-02T08:04:20Z</time></trkpt><trkpt lat="43.399635504861976" lon="2.2930212572459743"><ele>700.5</ele><time>2026-04-02T08:04:21Z</time></trkpt><trkpt lat="43.39964537456554" lon="2.292813933209558"><ele>702.25</ele><time>2026-04-02T08:04:22Z</time></trkpt><trkpt lat="43.399664540541934" lon="2.292634896087093"><ele>704.0</ele><time>2026-04-02T08:04:23Z</time></trkpt><trkpt lat="43.39970045206493" lon="2.292497162529349"><ele>696.0</ele><time>2026-04-02T08:04:24Z</time></trkpt><trkpt lat="43.39974606221338" lon="2.2924044013501175"><ele>688.0</ele><time>2026-04-02T08:04:25Z</time></trkpt><trkpt lat="43.399802163140485" lon="2.2923202746318623"><ele>680.0</ele><time>2026-04-02T08:04:26Z</time></trkpt><trkpt lat="43.399881969285" lon="2.292283303111015"><ele>672.0</ele><time>2026-04-02T08:04:27Z</time></trkpt><trkpt lat="43.39999400599525" lon="2.292293840172139"><ele>664.0</ele><time>2026-04-02T08:04:28Z</time></trkpt><trkpt lat="43.40013050997013" lon="2.29229668665638"><ele>664.0</ele><time>2026-04-02T08:04:29Z</time></trkpt><trkpt lat="43.400279700097975" lon="2.2922619219972984"><ele>664.0</ele><time>2026-04-02T08:04:30Z</time></trkpt><trkpt lat="43.400396566954704" lon="2.292175955179308"><ele>664.0</ele><time>2026-04-02T08:04:31Z</time></trkpt><trkpt lat="43.400495097256915" lon="2.2920428799470076"><ele>664.0</ele><time>2026-04-02T08:04:32Z</time></trkpt><trkpt lat="43.40058980731433" lon="2.291867552413361"><ele>662.3333333333334</ele><time>2026-04-02T08:04:33Z</time></trkpt><trkpt lat="43.40068472688326" lon="2.291655168911501"><ele>660.6666666666666</ele><time>2026-04-02T08:04:34Z</time></trkpt><trkpt lat="43.40078322151102" lon="2.291435858059754"><ele>659.0</ele><time>2026-04-02T08:04:35Z</time></trkpt><trkpt lat="43.40087887240486" lon="2.2912309034159613"><ele>665.6666666666666</ele><time>2026-04-02T08:04:36Z</time></trkpt><trkpt lat="43.400982080852096" lon="2.2910487946340345"><ele>672.3333333333334</ele><time>2026-04-02T08:04:37Z</time></trkpt><trkpt lat="43.401097565476796" lon="2.2908757311419743"><ele>679.0</ele><time>2026-04-02T08:04:38Z</time></trkpt><trkpt lat="43.40121613425946" lon="2.2907149059592937"><ele>679.0</ele><time>2026-04-02T08:04:39Z</time></trkpt><trkpt lat="43.401338322790615" lon="2.2905560486283507"><ele>679.0</ele><time>2026-04-02T08:04:40Z</time></trkpt><trkpt lat="43.40147683606191" lon="2.29040209875706"><ele>679.0</ele><time>2026-04-02T08:04:41Z</time></trkpt><trkpt lat="43.401610979999816" lon="2.2902635335050436"><ele>679.0</ele><time>2026-04-02T08:04:42Z</time></trkpt><trkpt lat="43.40173842115505" lon="2.2901474523123775"><ele>679.0</ele><time>2026-04-02T08:04:43Z</time></trkpt><trkpt lat="43.401860600113615" lon="2.2900679540772337"><ele>679.0</ele><time>2026-04-02T08:04:44Z</time></trkpt><trkpt lat="43.401985507568945" lon="2.2900331961450844"><ele>679.0</ele><time>2026-04-02T08:04:45Z</time></trkpt><trkpt lat="43.40212921378861" lon="2.290038648053505"><ele>675.6666666666667</ele><time>2026-04-02T08:04:46Z</time></trkpt><trkpt lat="43.4022913302112" lon="2.2900560824026823"><ele>672.3333333333334</ele><time>2026-04-02T08:04:47Z</time></trkpt><trkpt lat="43.40245578053368" lon="2.290032565994586"><ele>669.0</ele><time>2026-04-02T08:04:48Z</time></trkpt><trkpt lat="43.40261446867876" lon="2.289970085441636"><ele>669.0</ele><time>2026-04-02T08:04:49Z</time></trkpt><trkpt lat="43.402764603794026" lon="2.2899141591594874"><ele>669.0</ele><time>2026-04-02T08:04:50Z</time></trkpt><trkpt lat="43.40289673279012" lon="2.2898817355352405"><ele>669.0</ele><time>2026-04-02T08:04:51Z</time></trkpt><trkpt lat="43.403010747602856" lon="2.2898434571957114"><ele>669.0</ele><time>2026-04-02T08:04:52Z</time></trkpt><trkpt lat="43.40311189061132" lon="2.2897688935229326"><ele>669.0</ele><time>2026-04-02T08:04:53Z</time></trkpt><trkpt lat="43.4031821167986" lon="2.2896614972566023"><ele>669.0</ele><time>2026-04-02T08:04:54Z</time></trkpt><trkpt lat="43.403215680219944" lon="2.2895234518574177"><ele>669.0</ele><time>2026-04-02T08:04:55Z</time></trkpt><trkpt lat="43.40321184126018" lon="2.2893581819012163"><ele>669.0</ele><time>2026-04-02T08:04:56Z</time></trkpt><trkpt lat="43.40316691291031" lon="2.289182035186733"><ele>669.0</ele><time>2026-04-02T08:04:57Z</time></trkpt><trkpt lat="43.40309011460504" lon="2.2890154809715826"><ele>669.0</ele><time>2026-04-02T08:04:58Z</time></trkpt><trkpt lat="43.40299547756529" lon="2.288861926703784"><ele>669.0</ele><time>2026-04-02T08:04:59Z</time></trkpt><trkpt lat="43.40289885630151" lon="2.28870759829722"><ele>669.0</ele><time>2026-04-02T08:05:00Z</time></trkpt><trkpt lat="43.402822539257755" lon="2.2885396599443486"><ele>676.75</ele><time>2026-04-02T08:05:01Z</time></trkpt><trkpt lat="43.402763611829556" lon="2.2883620114571293"><ele>684.5</ele><time>2026-04-02T08:05:02Z</time></trkpt><trkpt lat="43.40272820617502" lon="2.288191379929479"><ele>692.25</ele><time>2026-04-02T08:05:03Z</time></trkpt><trkpt lat="43.40271398153114" lon="2.2880261209150783"><ele>700.0</ele><time>2026-04-02T08:05:04Z</time></trkpt><trkpt lat="43.40271948181702" lon="2.287846477596"><ele>700.3333333333334</ele><time>2026-04-02T08:05:05Z</time></trkpt><trkpt lat="43.402746900559414" lon="2.2876528623272194"><ele>700.6666666666666</ele><time>2026-04-02T08:05:06Z</time></trkpt><trkpt lat="43.40279492281512" lon="2.287461008804575"><ele>701.0</ele><time>2026-04-02T08:05:07Z</time></trkpt><trkpt lat="43.402831983800375" lon="2.2872382539198046"><ele>703.3333333333333</ele><time>2026-04-02T08:05:08Z</time></trkpt><trkpt lat="43.40286828122282" lon="2.286998369209603"><ele>705.6666666666666</ele><time>2026-04-02T08:05:09Z</time></trkpt><trkpt lat="43.40290231342607" lon="2.2867789292469523"><ele>708.0</ele><time>2026-04-02T08:05:10Z</time></trkpt><trkpt lat="43.40293483863" lon="2.286589228792602"><ele>711.5</ele><time>2026-04-02T08:05:11Z</time></trkpt><trkpt lat="43.40297092165977" lon="2.2864158464279325"><ele>715.0</ele><time>2026-04-02T08:05:12Z</time></trkpt><trkpt lat="43.40302830877166" lon="2.286263912512881"><ele>718.5</ele><time>2026-04-02T08:05:13Z</time></trkpt><trkpt lat="43.40311287628834" lon="2.2861314860402064"><ele>722.0</ele><time>2026-04-02T08:05:14Z</time></trkpt><trkpt lat="43.40319706693942" lon="2.286003652958719"><ele>716.5</ele><time>2026-04-02T08:05:15Z</time></trkpt><trkpt lat="43.403275034022734" lon="2.28584757809867"><ele>711.0</ele><time>2026-04-02T08:05:16Z</time></trkpt><trkpt lat="43.40333289285454" lon="2.2856636440971885"><ele>705.5</ele><time>2026-04-02T08:05:17Z</time></trkpt><trkpt lat="43.403390938787396" lon="2.285457998140871"><ele>700.0</ele><time>2026-04-02T08:05:18Z</time></trkpt><trkpt lat="43.403465496498626" lon="2.285236229078853"><ele>700.0</ele><time>2026-04-02T08:05:19Z</time></trkpt><trkpt lat="43.40355005714022" lon="2.285029105262492"><ele>700.0</ele><time>2026-04-02T08:05:20Z</time></trkpt><trkpt lat="43.403625143494544" lon="2.2848306150635502"><ele>700.0</ele><time>2026-04-02T08:05:21Z</time></trkpt><trkpt lat="43.40370463719425" lon="2.2846392867195107"><ele>696.75</ele><time>2026-04-02T08:05:22Z</time></trkpt><trkpt lat="43.40378286997291" lon="2.2844649241144768"><ele>693.5</ele><time>2026-04-02T08:05:23Z</time></trkpt><trkpt lat="43.40384605344429" lon="2.2842940828328544"><ele>690.25</ele><time>2026-04-02T08:05:24Z</time></trkpt><trkpt lat="43.403907886938605" lon="2.284136808574676"><ele>687.0</ele><time>2026-04-02T08:05:25Z</time></trkpt><trkpt lat="43.40395704428129" lon="2.283965607291698"><ele>687.8</ele><time>2026-04-02T08:05:26Z</time></trkpt><trkpt lat="43.40397799105546" lon="2.2837969224692736"><ele>688.6</ele><time>2026-04-02T08:05:27Z</time></trkpt><trkpt lat="43.40397374997125" lon="2.283651036799976"><ele>689.4</ele><time>2026-04-02T08:05:28Z</time></trkpt><trkpt lat="43.403970512725934" lon="2.283526808020376"><ele>690.1999999999999</ele><time>2026-04-02T08:05:29Z</time></trkpt><trkpt lat="43.40399063629009" lon="2.2834334771100937"><ele>691.0</ele><time>2026-04-02T08:05:30Z</time></trkpt><trkpt lat="43.40404134856837" lon="2.283349542453263"><ele>691.0</ele><time>2026-04-02T08:05:31Z</time></trkpt><trkpt lat="43.40412385699708" lon="2.283316209317462"><ele>691.0</ele><time>2026-04-02T08:05:32Z</time></trkpt><trkpt lat="43.40422260631237" lon="2.2833077235743677"><ele>691.0</ele><time>2026-04-02T08:05:33Z</time></trkpt><trkpt lat="43.404331408028575" lon="2.283271383041562"><ele>691.0</ele><time>2026-04-02T08:05:34Z</time></trkpt><trkpt lat="43.40444314411883" lon="2.2832003901356814"><ele>691.0</ele><time>2026-04-02T08:05:35Z</time></trkpt><trkpt lat="43.40455457809159" lon="2.283090413749167"><ele>692.0</ele><time>2026-04-02T08:05:36Z</time></trkpt><trkpt lat="43.40465985321162" lon="2.282945151239782"><ele>693.0</ele><time>2026-04-02T08:05:37Z</time></trkpt><trkpt lat="43.40473462971612" lon="2.2827179197633196"><ele>694.0</ele><time>2026-04-02T08:05:38Z</time></trkpt><trkpt lat="43.40482036899628" lon="2.2825329362923634"><ele>694.0</ele><time>2026-04-02T08:05:39Z</time></trkpt><trkpt lat="43.40489948555251" lon="2.2823432353762265"><ele>694.0</ele><time>2026-04-02T08:05:40Z</time></trkpt><trkpt lat="43.404976093119885" lon="2.282177834757241"><ele>694.0</ele><time>2026-04-02T08:05:41Z</time></trkpt><trkpt lat="43.405039516481025" lon="2.2820265035155334"><ele>694.0</ele><time>2026-04-02T08:05:42Z</time></trkpt><trkpt lat="43.405116596144005" lon="2.281896228352909"><ele>697.25</ele><time>2026-04-02T08:05:43Z</time></trkpt><trkpt lat="43.405222544256674" lon="2.2818023989760094"><ele>700.5</ele><time>2026-04-02T08:05:44Z</time></trkpt><trkpt lat="43.405348035856825" lon="2.281736612536486"><ele>703.75</ele><time>2026-04-02T08:05:45Z</time></trkpt><trkpt lat="43.40550014471631" lon="2.2816805808490086"><ele>707.0</ele><time>2026-04-02T08:05:46Z</time></trkpt><trkpt lat="43.40564998903407" lon="2.281627301783561"><ele>707.0</ele><time>2026-04-02T08:05:47Z</time></trkpt><trkpt lat="43.40580752067997" lon="2.28159339370122"><ele>707.0</ele><time>2026-04-02T08:05:48Z</time></trkpt><trkpt lat="43.40595683859443" lon="2.281584149115317"><ele>707.0</ele><time>2026-04-02T08:05:49Z</time></trkpt><trkpt lat="43.40611535401684" lon="2.281600649833721"><ele>707.0</ele><time>2026-04-02T08:05:50Z</time></trkpt><trkpt lat="43.40628915600321" lon="2.2816006617905633"><ele>707.0</ele><time>2026-04-02T08:05:51Z</time></trkpt><trkpt lat="43.40646009962973" lon="2.2815987658005854"><ele>707.0</ele><time>2026-04-02T08:05:52Z</time></trkpt><trkpt lat="43.40664410691841" lon="2.2816084470764415"><ele>708.3333333333333</ele><time>2026-04-02T08:05:53Z</time></trkpt><trkpt lat="43.40682574501793" lon="2.2816208927464507"><ele>709.6666666666666</ele><time>2026-04-02T08:05:54Z</time></trkpt><trkpt lat="43.40698706331234" lon="2.281638066347389"><ele>711.0</ele><time>2026-04-02T08:05:55Z</time></trkpt><trkpt lat="43.407141989802874" lon="2.2816894089663613"><ele>715.0</ele><time>2026-04-02T08:05:56Z</time></trkpt><trkpt lat="43.40727934145493" lon="2.2817779582164057"><ele>719.0</ele><time>2026-04-02T08:05:57Z</time></trkpt><trkpt lat="43.407405492151874" lon="2.281896920018619"><ele>723.0</ele><time>2026-04-02T08:05:58Z</time></trkpt><trkpt lat="43.40751764401528" lon="2.2820407018037163"><ele>723.0</ele><time>2026-04-02T08:05:59Z</time></trkpt><trkpt lat="43.4076298458109" lon="2.282178222936246"><ele>723.0</ele><time>2026-04-02T08:06:00Z</time></trkpt><trkpt lat="43.40775662916092" lon="2.2822637760598203"><ele>723.0</ele><time>2026-04-02T08:06:01Z</time></trkpt><trkpt lat="43.40792223449939" lon="2.2823504952175884"><ele>722.6666666666666</ele><time>2026-04-02T08:06:02Z</time></trkpt><trkpt lat="43.40809576319939" lon="2.2824409545703106"><ele>722.3333333333333</ele><time>2026-04-02T08:06:03Z</time></trkpt><trkpt lat="43.40826342567779" lon="2.282531092801303"><ele>722.0</ele><time>2026-04-02T08:06:04Z</time></trkpt><trkpt lat="43.40840871335686" lon="2.282624985196238"><ele>722.0</ele><time>2026-04-02T08:06:05Z</time></trkpt><trkpt lat="43.408520641668616" lon="2.2827134761990178"><ele>722.0</ele><time>2026-04-02T08:06:06Z</time></trkpt><trkpt lat="43.4085995263013" lon="2.2827826040781156"><ele>722.0</ele><time>2026-04-02T08:06:07Z</time></trkpt><trkpt lat="43.4086590479907" lon="2.282855449983825"><ele>722.0</ele><time>2026-04-02T08:06:08Z</time></trkpt><trkpt lat="43.40869609637609" lon="2.282930775131083"><ele>722.0</ele><time>2026-04-02T08:06:09Z</time></trkpt><trkpt lat="43.40871333142171" lon="2.28302806604613"><ele>722.0</ele><time>2026-04-02T08:06:10Z</time></trkpt><trkpt lat="43.40869588533245" lon="2.2831175073015237"><ele>723.2</ele><time>2026-04-02T08:06:11Z</time></trkpt><trkpt lat="43.40865243279996" lon="2.28318363787818"><ele>724.4000000000001</ele><time>2026-04-02T08:06:12Z</time></trkpt><trkpt lat="43.40856879893038" lon="2.2833119866086267"><ele>725.5999999999999</ele><time>2026-04-02T08:06:14Z</time></trkpt><trkpt lat="43.40857719305701" lon="2.283479888147622"><ele>726.8</ele><time>2026-04-02T08:06:16Z</time></trkpt><trkpt lat="43.40862500603152" lon="2.2835539402214367"><ele>728.0</ele><time>2026-04-02T08:06:17Z</time></trkpt><trkpt lat="43.40869818471408" lon="2.2835863186482985"><ele>728.0</ele><time>2026-04-02T08:06:18Z</time></trkpt><trkpt lat="43.40880151543216" lon="2.283615714044019"><ele>728.0</ele><time>2026-04-02T08:06:19Z</time></trkpt><trkpt lat="43.408903137152144" lon="2.283647262986708"><ele>728.0</ele><time>2026-04-02T08:06:20Z</time></trkpt><trkpt lat="43.40899232324837" lon="2.2836925592918793"><ele>728.0</ele><time>2026-04-02T08:06:21Z</time></trkpt><trkpt lat="43.40906179888297" lon="2.2837738749732956"><ele>728.0</ele><time>2026-04-02T08:06:22Z</time></trkpt><trkpt lat="43.4091338650175" lon="2.283887573083503"><ele>730.0</ele><time>2026-04-02T08:06:23Z</time></trkpt><trkpt lat="43.40918405544102" lon="2.2839795772222105"><ele>732.0</ele><time>2026-04-02T08:06:24Z</time></trkpt><trkpt lat="43.40923721812409" lon="2.284090940674109"><ele>734.0</ele><time>2026-04-02T08:06:25Z</time></trkpt><trkpt lat="43.40927861826021" lon="2.2841672396748276"><ele>736.0</ele><time>2026-04-02T08:06:26Z</time></trkpt><trkpt lat="43.40932116118017" lon="2.284302851923542"><ele>738.0</ele><time>2026-04-02T08:06:28Z</time></trkpt><trkpt lat="43.40936715477518" lon="2.2844226713466536"><ele>738.0</ele><time>2026-04-02T08:06:31Z</time></trkpt><trkpt lat="43.40940845997556" lon="2.2845374004745818"><ele>738.0</ele><time>2026-04-02T08:06:33Z</time></trkpt><trkpt lat="43.40947081220205" lon="2.2846685805320592"><ele>738.0</ele><time>2026-04-02T08:06:35Z</time></trkpt><trkpt lat="43.40952585214381" lon="2.284743851812497"><ele>738.0</ele><time>2026-04-02T08:06:36Z</time></trkpt><trkpt lat="43.409596633110134" lon="2.2848119894456813"><ele>738.0</ele><time>2026-04-02T08:06:37Z</time></trkpt><trkpt lat="43.40964517558168" lon="2.284885652279451"><ele>738.0</ele><time>2026-04-02T08:06:38Z</time></trkpt><trkpt lat="43.409703577108104" lon="2.2849421673051458"><ele>737.5</ele><time>2026-04-02T08:06:39Z</time></trkpt><trkpt lat="43.40976487154392" lon="2.2849755151047293"><ele>737.0</ele><time>2026-04-02T08:06:40Z</time></trkpt><trkpt lat="43.40985146079216" lon="2.2849731226934162"><ele>736.5</ele><time>2026-04-02T08:06:41Z</time></trkpt><trkpt lat="43.40991863443619" lon="2.28498948048179"><ele>736.0</ele><time>2026-04-02T08:06:42Z</time></trkpt><trkpt lat="43.409992181047144" lon="2.284988351321294"><ele>735.5</ele><time>2026-04-02T08:06:43Z</time></trkpt><trkpt lat="43.410075312252154" lon="2.285016552681014"><ele>735.0</ele><time>2026-04-02T08:06:44Z</time></trkpt><trkpt lat="43.41028721929309" lon="2.285075285601061"><ele>735.0</ele><time>2026-04-02T08:06:46Z</time></trkpt><trkpt lat="43.41037777035718" lon="2.2851143797315365"><ele>735.0</ele><time>2026-04-02T08:06:47Z</time></trkpt><trkpt lat="43.41047143173313" lon="2.285165116211573"><ele>735.0</ele><time>2026-04-02T08:06:48Z</time></trkpt><trkpt lat="43.41056122431649" lon="2.28522619483155"><ele>735.0</ele><time>2026-04-02T08:06:49Z</time></trkpt><trkpt lat="43.410650040951424" lon="2.28528388021649"><ele>735.0</ele><time>2026-04-02T08:06:50Z</time></trkpt><trkpt lat="43.41072505356862" lon="2.2853568942617577"><ele>735.4</ele><time>2026-04-02T08:06:51Z</time></trkpt><trkpt lat="43.410806467490026" lon="2.2854307783629113"><ele>735.8</ele><time>2026-04-02T08:06:52Z</time></trkpt><trkpt lat="43.410884796007956" lon="2.2855128694795046"><ele>736.2</ele><time>2026-04-02T08:06:53Z</time></trkpt><trkpt lat="43.41093800457343" lon="2.285625875915243"><ele>736.6</ele><time>2026-04-02T08:06:54Z</time></trkpt><trkpt lat="43.41097091243308" lon="2.28575457057959"><ele>737.0</ele><time>2026-04-02T08:06:55Z</time></trkpt><trkpt lat="43.410977957233655" lon="2.285886208017737"><ele>737.4000000000001</ele><time>2026-04-02T08:06:56Z</time></trkpt><trkpt lat="43.41095950868257" lon="2.286012892398681"><ele>737.8000000000001</ele><time>2026-04-02T08:06:57Z</time></trkpt><trkpt lat="43.41093457305297" lon="2.2861396055340824"><ele>738.2</ele><time>2026-04-02T08:06:58Z</time></trkpt><trkpt lat="43.41088920416019" lon="2.286282344229175"><ele>738.6</ele><time>2026-04-02T08:06:59Z</time></trkpt><trkpt lat="43.41083511501363" lon="2.286446370010627"><ele>739.0</ele><time>2026-04-02T08:07:00Z</time></trkpt><trkpt lat="43.410757862777935" lon="2.2866184297190557"><ele>739.3333333333334</ele><time>2026-04-02T08:07:01Z</time></trkpt><trkpt lat="43.4106563744985" lon="2.2868099047699277"><ele>739.6666666666666</ele><time>2026-04-02T08:07:02Z</time></trkpt><trkpt lat="43.41053334706116" lon="2.287020892175522"><ele>740.0</ele><time>2026-04-02T08:07:03Z</time></trkpt><trkpt lat="43.41041731873542" lon="2.2872211120915376"><ele>743.6666666666666</ele><time>2026-04-02T08:07:04Z</time></trkpt><trkpt lat="43.410301954915084" lon="2.287436508398476"><ele>747.3333333333334</ele><time>2026-04-02T08:07:05Z</time></trkpt><trkpt lat="43.41020169580204" lon="2.2876106730568626"><ele>751.0</ele><time>2026-04-02T08:07:06Z</time></trkpt><trkpt lat="43.410111163615184" lon="2.2877496889296687"><ele>751.0</ele><time>2026-04-02T08:07:07Z</time></trkpt><trkpt lat="43.410048605829495" lon="2.28786171532063"><ele>751.0</ele><time>2026-04-02T08:07:08Z</time></trkpt><trkpt lat="43.410032519648595" lon="2.288006514868923"><ele>751.0</ele><time>2026-04-02T08:07:09Z</time></trkpt><trkpt lat="43.41005968157461" lon="2.288151826782387"><ele>751.0</ele><time>2026-04-02T08:07:10Z</time></trkpt><trkpt lat="43.41011613059299" lon="2.2883334714131074"><ele>751.0</ele><time>2026-04-02T08:07:11Z</time></trkpt><trkpt lat="43.41018816749068" lon="2.288548261717968"><ele>751.0</ele><time>2026-04-02T08:07:12Z</time></trkpt><trkpt lat="43.41026207949358" lon="2.288781937506146"><ele>751.0</ele><time>2026-04-02T08:07:13Z</time></trkpt><trkpt lat="43.41032727356452" lon="2.288975138690952"><ele>750.6666666666667</ele><time>2026-04-02T08:07:14Z</time></trkpt><trkpt lat="43.41041336639741" lon="2.289138934102449"><ele>750.3333333333334</ele><time>2026-04-02T08:07:15Z</time></trkpt><trkpt lat="43.41052679123683" lon="2.2892784370943167"><ele>750.0</ele><time>2026-04-02T08:07:16Z</time></trkpt><trkpt lat="43.410663788287756" lon="2.2893968603444583"><ele>750.0</ele><time>2026-04-02T08:07:17Z</time></trkpt><trkpt lat="43.41082263498601" lon="2.2895099787741358"><ele>750.0</ele><time>2026-04-02T08:07:18Z</time></trkpt><trkpt lat="43.41097828221092" lon="2.289602839231888"><ele>750.0</ele><time>2026-04-02T08:07:19Z</time></trkpt><trkpt lat="43.41115366030223" lon="2.2896905291166076"><ele>752.3333333333334</ele><time>2026-04-02T08:07:20Z</time></trkpt><trkpt lat="43.41135246756632" lon="2.289776703614834"><ele>754.6666666666667</ele><time>2026-04-02T08:07:21Z</time></trkpt><trkpt lat="43.411535830435" lon="2.289859208858742"><ele>757.0</ele><time>2026-04-02T08:07:22Z</time></trkpt><trkpt lat="43.411687975337856" lon="2.2899326331246006"><ele>757.0</ele><time>2026-04-02T08:07:23Z</time></trkpt><trkpt lat="43.41182002742757" lon="2.2900073777430445"><ele>757.0</ele><time>2026-04-02T08:07:24Z</time></trkpt><trkpt lat="43.41194362625866" lon="2.2901152622888206"><ele>757.0</ele><time>2026-04-02T08:07:25Z</time></trkpt><trkpt lat="43.412034580213344" lon="2.290272230006041"><ele>757.0</ele><time>2026-04-02T08:07:26Z</time></trkpt><trkpt lat="43.41210429351399" lon="2.290476682699832"><ele>760.0</ele><time>2026-04-02T08:07:27Z</time></trkpt><trkpt lat="43.412166107243024" lon="2.290708612419959"><ele>763.0</ele><time>2026-04-02T08:07:28Z</time></trkpt><trkpt lat="43.41221253682405" lon="2.2909417404377015"><ele>766.0</ele><time>2026-04-02T08:07:29Z</time></trkpt><trkpt lat="43.4122339210669" lon="2.291145438876973"><ele>766.0</ele><time>2026-04-02T08:07:30Z</time></trkpt><trkpt lat="43.41223007161582" lon="2.291322252094144"><ele>766.0</ele><time>2026-04-02T08:07:31Z</time></trkpt><trkpt lat="43.41223420366781" lon="2.2914526702493196"><ele>766.0</ele><time>2026-04-02T08:07:32Z</time></trkpt><trkpt lat="43.41227371274946" lon="2.291520150376313"><ele>766.0</ele><time>2026-04-02T08:07:33Z</time></trkpt><trkpt lat="43.41235260726818" lon="2.291512210294011"><ele>766.0</ele><time>2026-04-02T08:07:35Z</time></trkpt><trkpt lat="43.41240835728766" lon="2.291464745518726"><ele>766.0</ele><time>2026-04-02T08:07:36Z</time></trkpt><trkpt lat="43.41250329354798" lon="2.291379228657961"><ele>766.0</ele><time>2026-04-02T08:07:37Z</time></trkpt><trkpt lat="43.41260734750392" lon="2.291275257768581"><ele>766.0</ele><time>2026-04-02T08:07:38Z</time></trkpt><trkpt lat="43.41267872760912" lon="2.2912171917692956"><ele>766.0</ele><time>2026-04-02T08:07:39Z</time></trkpt><trkpt lat="43.41274608193578" lon="2.2912420305900754"><ele>766.0</ele><time>2026-04-02T08:07:41Z</time></trkpt><trkpt lat="43.41274629980706" lon="2.291386004688338"><ele>766.0</ele><time>2026-04-02T08:07:43Z</time></trkpt><trkpt lat="43.412718866731154" lon="2.2915331857228916"><ele>768.0</ele><time>2026-04-02T08:07:44Z</time></trkpt><trkpt lat="43.41269133293193" lon="2.29172287749837"><ele>770.0</ele><time>2026-04-02T08:07:45Z</time></trkpt><trkpt lat="43.41266306986073" lon="2.2919677739000996"><ele>772.0</ele><time>2026-04-02T08:07:46Z</time></trkpt><trkpt lat="43.41263586129611" lon="2.2922155821210817"><ele>772.3333333333333</ele><time>2026-04-02T08:07:47Z</time></trkpt><trkpt lat="43.412607351195945" lon="2.292463574976746"><ele>772.6666666666667</ele><time>2026-04-02T08:07:48Z</time></trkpt><trkpt lat="43.41259698853816" lon="2.2927118170678935"><ele>773.0</ele><time>2026-04-02T08:07:49Z</time></trkpt><trkpt lat="43.41260283770623" lon="2.292961420201124"><ele>773.6666666666667</ele><time>2026-04-02T08:07:50Z</time></trkpt><trkpt lat="43.41260915995427" lon="2.2932049191803423"><ele>774.3333333333333</ele><time>2026-04-02T08:07:51Z</time></trkpt><trkpt lat="43.41262526430313" lon="2.2934444428579503"><ele>775.0</ele><time>2026-04-02T08:07:52Z</time></trkpt><trkpt lat="43.41264619687098" lon="2.2936815941151507"><ele>775.0</ele><time>2026-04-02T08:07:53Z</time></trkpt><trkpt lat="43.41267191401401" lon="2.2939152539538403"><ele>775.0</ele><time>2026-04-02T08:07:54Z</time></trkpt><trkpt lat="43.41269631854376" lon="2.294152826278302"><ele>775.0</ele><time>2026-04-02T08:07:55Z</time></trkpt><trkpt lat="43.41271734205044" lon="2.2943740147221967"><ele>775.5</ele><time>2026-04-02T08:07:56Z</time></trkpt><trkpt lat="43.4127394927554" lon="2.294570225485722"><ele>776.0</ele><time>2026-04-02T08:07:57Z</time></trkpt><trkpt lat="43.41277178720233" lon="2.2947567507380198"><ele>776.5</ele><time>2026-04-02T08:07:58Z</time></trkpt><trkpt lat="43.41283423809343" lon="2.294917372115294"><ele>777.0</ele><time>2026-04-02T08:07:59Z</time></trkpt><trkpt lat="43.412919982413605" lon="2.295066867274102"><ele>778.0</ele><time>2026-04-02T08:08:00Z</time></trkpt><trkpt lat="43.413021339918494" lon="2.295209974001479"><ele>779.0</ele><time>2026-04-02T08:08:01Z</time></trkpt><trkpt lat="43.413121252630134" lon="2.295338170138718"><ele>780.0</ele><time>2026-04-02T08:08:02Z</time></trkpt><trkpt lat="43.41322715021727" lon="2.2954378932310093"><ele>781.0</ele><time>2026-04-02T08:08:03Z</time></trkpt><trkpt lat="43.41335127348532" lon="2.295482577691869"><ele>781.0</ele><time>2026-04-02T08:08:04Z</time></trkpt><trkpt lat="43.41348248844976" lon="2.2955030520724433"><ele>781.0</ele><time>2026-04-02T08:08:05Z</time></trkpt><trkpt lat="43.41360889459003" lon="2.2955462817905783"><ele>781.0</ele><time>2026-04-02T08:08:06Z</time></trkpt><trkpt lat="43.4137125731972" lon="2.2956343014577847"><ele>781.0</ele><time>2026-04-02T08:08:07Z</time></trkpt><trkpt lat="43.41379043413492" lon="2.295758829850272"><ele>781.5</ele><time>2026-04-02T08:08:08Z</time></trkpt><trkpt lat="43.41384865732229" lon="2.2959184711110376"><ele>782.0</ele><time>2026-04-02T08:08:09Z</time></trkpt><trkpt lat="43.413902342637776" lon="2.2961192765074343"><ele>782.5</ele><time>2026-04-02T08:08:10Z</time></trkpt><trkpt lat="43.413949274092346" lon="2.2963307959287054"><ele>783.0</ele><time>2026-04-02T08:08:11Z</time></trkpt><trkpt lat="43.41400923104361" lon="2.2965478889168054"><ele>781.3333333333333</ele><time>2026-04-02T08:08:12Z</time></trkpt><trkpt lat="43.41407429796107" lon="2.2967619865690385"><ele>779.6666666666666</ele><time>2026-04-02T08:08:13Z</time></trkpt><trkpt lat="43.41412567024881" lon="2.296978790410682"><ele>778.0</ele><time>2026-04-02T08:08:14Z</time></trkpt><trkpt lat="43.41415027567872" lon="2.297191259300678"><ele>777.0</ele><time>2026-04-02T08:08:15Z</time></trkpt><trkpt lat="43.41415194535014" lon="2.2974110616198553"><ele>776.0</ele><time>2026-04-02T08:08:16Z</time></trkpt><trkpt lat="43.414135352924404" lon="2.2976388268743237"><ele>775.0</ele><time>2026-04-02T08:08:17Z</time></trkpt><trkpt lat="43.41410483687638" lon="2.297870563426287"><ele>775.6666666666666</ele><time>2026-04-02T08:08:18Z</time></trkpt><trkpt lat="43.41406896222309" lon="2.2981003337972052"><ele>776.3333333333333</ele><time>2026-04-02T08:08:19Z</time></trkpt><trkpt lat="43.41403294139239" lon="2.298338860915222"><ele>777.0</ele><time>2026-04-02T08:08:20Z</time></trkpt><trkpt lat="43.41400065131944" lon="2.2985662725800107"><ele>777.0</ele><time>2026-04-02T08:08:21Z</time></trkpt><trkpt lat="43.413972244443336" lon="2.2987565516563766"><ele>777.0</ele><time>2026-04-02T08:08:22Z</time></trkpt><trkpt lat="43.41394660787973" lon="2.298917836636482"><ele>777.0</ele><time>2026-04-02T08:08:23Z</time></trkpt><trkpt lat="43.41391916680998" lon="2.299050731695816"><ele>777.0</ele><time>2026-04-02T08:08:24Z</time></trkpt><trkpt lat="43.41388609238649" lon="2.2991470449441245"><ele>777.0</ele><time>2026-04-02T08:08:25Z</time></trkpt><trkpt lat="43.41384216979873" lon="2.2992639313648806"><ele>777.0</ele><time>2026-04-02T08:08:27Z</time></trkpt><trkpt lat="43.41392567677451" lon="2.299464492085338"><ele>777.0</ele><time>2026-04-02T08:08:33Z</time></trkpt><trkpt lat="43.41399873932419" lon="2.2995794609519367"><ele>777.0</ele><time>2026-04-02T08:08:34Z</time></trkpt><trkpt lat="43.414102624925384" lon="2.299704096981424"><ele>777.0</ele><time>2026-04-02T08:08:35Z</time></trkpt><trkpt lat="43.414212744767454" lon="2.2998409897392125"><ele>777.0</ele><time>2026-04-02T08:08:36Z</time></trkpt><trkpt lat="43.414351986833196" lon="2.2999620192483192"><ele>777.0</ele><time>2026-04-02T08:08:37Z</time></trkpt><trkpt lat="43.41451818959536" lon="2.30005762438363"><ele>777.0</ele><time>2026-04-02T08:08:38Z</time></trkpt><trkpt lat="43.41469861855376" lon="2.300100006524823"><ele>776.6666666666667</ele><time>2026-04-02T08:08:39Z</time></trkpt><trkpt lat="43.41490086317781" lon="2.300108923306346"><ele>776.3333333333334</ele><time>2026-04-02T08:08:40Z</time></trkpt><trkpt lat="43.41510851868935" lon="2.3001091119431925"><ele>776.0</ele><time>2026-04-02T08:08:41Z</time></trkpt><trkpt lat="43.41530283172681" lon="2.3001224678022276"><ele>776.0</ele><time>2026-04-02T08:08:42Z</time></trkpt><trkpt lat="43.41548165983558" lon="2.3001593765904675"><ele>776.0</ele><time>2026-04-02T08:08:43Z</time></trkpt><trkpt lat="43.41566209130854" lon="2.300221509540072"><ele>776.0</ele><time>2026-04-02T08:08:44Z</time></trkpt><trkpt lat="43.41583391173377" lon="2.300334468649734"><ele>775.3333333333334</ele><time>2026-04-02T08:08:45Z</time></trkpt><trkpt lat="43.41599051311779" lon="2.3004907897131246"><ele>774.6666666666667</ele><time>2026-04-02T08:08:46Z</time></trkpt><trkpt lat="43.41613391768381" lon="2.3006681358765557"><ele>774.0</ele><time>2026-04-02T08:08:47Z</time></trkpt><trkpt lat="43.41627668577421" lon="2.3008600805193673"><ele>773.0</ele><time>2026-04-02T08:08:48Z</time></trkpt><trkpt lat="43.41642132596348" lon="2.3010573705649477"><ele>772.0</ele><time>2026-04-02T08:08:49Z</time></trkpt><trkpt lat="43.41656143706652" lon="2.301265860507792"><ele>771.0</ele><time>2026-04-02T08:08:50Z</time></trkpt><trkpt lat="43.4166985136134" lon="2.301481199787854"><ele>771.0</ele><time>2026-04-02T08:08:51Z</time></trkpt><trkpt lat="43.41682779422424" lon="2.301706572810809"><ele>771.0</ele><time>2026-04-02T08:08:52Z</time></trkpt><trkpt lat="43.41694767173426" lon="2.301954525543545"><ele>771.0</ele><time>2026-04-02T08:08:53Z</time></trkpt><trkpt lat="43.41705157885429" lon="2.3022231973391003"><ele>765.0</ele><time>2026-04-02T08:08:54Z</time></trkpt><trkpt lat="43.41715446814436" lon="2.30250532088376"><ele>759.0</ele><time>2026-04-02T08:08:55Z</time></trkpt><trkpt lat="43.41725758610777" lon="2.30279003877669"><ele>759.0</ele><time>2026-04-02T08:08:56Z</time></trkpt><trkpt lat="43.417366568377695" lon="2.30307486411981"><ele>759.0</ele><time>2026-04-02T08:08:57Z</time></trkpt><trkpt lat="43.41747802076249" lon="2.303357507260748"><ele>760.5</ele><time>2026-04-02T08:08:58Z</time></trkpt><trkpt lat="43.41758459125458" lon="2.3036485865340577"><ele>762.0</ele><time>2026-04-02T08:08:59Z</time></trkpt><trkpt lat="43.41768821443662" lon="2.3039347617282373"><ele>765.0</ele><time>2026-04-02T08:09:00Z</time></trkpt><trkpt lat="43.41779716171056" lon="2.3042199766452067"><ele>768.0</ele><time>2026-04-02T08:09:01Z</time></trkpt><trkpt lat="43.41790222372191" lon="2.3045093079884578"><ele>761.5</ele><time>2026-04-02T08:09:02Z</time></trkpt><trkpt lat="43.41800437660371" lon="2.304803839105982"><ele>755.0</ele><time>2026-04-02T08:09:03Z</time></trkpt><trkpt lat="43.418113455458396" lon="2.305099154966814"><ele>755.0</ele><time>2026-04-02T08:09:04Z</time></trkpt><trkpt lat="43.41822973936326" lon="2.3053972579967703"><ele>755.0</ele><time>2026-04-02T08:09:05Z</time></trkpt><trkpt lat="43.41834797842281" lon="2.3056951746276786"><ele>756.0</ele><time>2026-04-02T08:09:06Z</time></trkpt><trkpt lat="43.418458879363406" lon="2.3059917865888595"><ele>757.0</ele><time>2026-04-02T08:09:07Z</time></trkpt><trkpt lat="43.41855862120752" lon="2.306275441153591"><ele>757.3333333333334</ele><time>2026-04-02T08:09:08Z</time></trkpt><trkpt lat="43.418658887525645" lon="2.3065482140817113"><ele>757.6666666666666</ele><time>2026-04-02T08:09:09Z</time></trkpt><trkpt lat="43.41875355062872" lon="2.306803120538597"><ele>758.0</ele><time>2026-04-02T08:09:10Z</time></trkpt><trkpt lat="43.418839761293135" lon="2.3070417478570344"><ele>754.3333333333333</ele><time>2026-04-02T08:09:11Z</time></trkpt><trkpt lat="43.41892029296305" lon="2.3072537797206945"><ele>750.6666666666666</ele><time>2026-04-02T08:09:12Z</time></trkpt><trkpt lat="43.419013085032695" lon="2.307447243812327"><ele>747.0</ele><time>2026-04-02T08:09:13Z</time></trkpt><trkpt lat="43.41912989688385" lon="2.3076061257315583"><ele>747.0</ele><time>2026-04-02T08:09:14Z</time></trkpt><trkpt lat="43.419282385065074" lon="2.3077237662853665"><ele>747.0</ele><time>2026-04-02T08:09:15Z</time></trkpt><trkpt lat="43.41946407468065" lon="2.3078178746844324"><ele>747.0</ele><time>2026-04-02T08:09:16Z</time></trkpt><trkpt lat="43.41966732265937" lon="2.3079240755993164"><ele>746.6666666666666</ele><time>2026-04-02T08:09:17Z</time></trkpt><trkpt lat="43.419872901155195" lon="2.3080450430523576"><ele>746.3333333333333</ele><time>2026-04-02T08:09:18Z</time></trkpt><trkpt lat="43.420075102331054" lon="2.3081683402260618"><ele>746.0</ele><time>2026-04-02T08:09:19Z</time></trkpt><trkpt lat="43.42027706494868" lon="2.3083250687732892"><ele>746.0</ele><time>2026-04-02T08:09:20Z</time></trkpt><trkpt lat="43.42047285643558" lon="2.3085060236113963"><ele>746.0</ele><time>2026-04-02T08:09:21Z</time></trkpt><trkpt lat="43.42067406630754" lon="2.308704190105905"><ele>746.5</ele><time>2026-04-02T08:09:22Z</time></trkpt><trkpt lat="43.42087344800472" lon="2.3089057142816665"><ele>747.0</ele><time>2026-04-02T08:09:23Z</time></trkpt><trkpt lat="43.42106668170607" lon="2.3090960112968126"><ele>749.0</ele><time>2026-04-02T08:09:24Z</time></trkpt><trkpt lat="43.421267940875985" lon="2.309288373150709"><ele>751.0</ele><time>2026-04-02T08:09:25Z</time></trkpt><trkpt lat="43.42146589318647" lon="2.309482565355612"><ele>751.3333333333334</ele><time>2026-04-02T08:09:26Z</time></trkpt><trkpt lat="43.421656655310535" lon="2.3096699972051367"><ele>751.6666666666666</ele><time>2026-04-02T08:09:27Z</time></trkpt><trkpt lat="43.42183295291403" lon="2.3098391394171163"><ele>752.0</ele><time>2026-04-02T08:09:28Z</time></trkpt><trkpt lat="43.42200638076264" lon="2.310004586791252"><ele>752.6666666666666</ele><time>2026-04-02T08:09:29Z</time></trkpt><trkpt lat="43.4221759977019" lon="2.3101718207177244"><ele>753.3333333333334</ele><time>2026-04-02T08:09:30Z</time></trkpt><trkpt lat="43.42234173454568" lon="2.3103697904277873"><ele>754.0</ele><time>2026-04-02T08:09:31Z</time></trkpt><trkpt lat="43.42249666981172" lon="2.310608591507621"><ele>756.5</ele><time>2026-04-02T08:09:32Z</time></trkpt><trkpt lat="43.422643604897736" lon="2.3108766101621194"><ele>759.0</ele><time>2026-04-02T08:09:33Z</time></trkpt><trkpt lat="43.42278835690121" lon="2.311161164220924"><ele>759.5</ele><time>2026-04-02T08:09:34Z</time></trkpt><trkpt lat="43.422930454513214" lon="2.311450017532464"><ele>760.0</ele><time>2026-04-02T08:09:35Z</time></trkpt><trkpt lat="43.42307239149222" lon="2.311732027633436"><ele>760.0</ele><time>2026-04-02T08:09:36Z</time></trkpt><trkpt lat="43.42320412010058" lon="2.3119885091159174"><ele>760.0</ele><time>2026-04-02T08:09:37Z</time></trkpt><trkpt lat="43.42332922970133" lon="2.312230896539363"><ele>760.0</ele><time>2026-04-02T08:09:38Z</time></trkpt><trkpt lat="43.42344700863439" lon="2.312462614044251"><ele>759.0</ele><time>2026-04-02T08:09:39Z</time></trkpt><trkpt lat="43.423555450194314" lon="2.3127008079855327"><ele>758.0</ele><time>2026-04-02T08:09:40Z</time></trkpt><trkpt lat="43.42364854660717" lon="2.3129698714316"><ele>757.0</ele><time>2026-04-02T08:09:41Z</time></trkpt><trkpt lat="43.423721582031696" lon="2.313266086402179"><ele>757.0</ele><time>2026-04-02T08:09:42Z</time></trkpt><trkpt lat="43.423766735847195" lon="2.3135778582893125"><ele>757.0</ele><time>2026-04-02T08:09:43Z</time></trkpt><trkpt lat="43.42378695298351" lon="2.313896874787302"><ele>754.5</ele><time>2026-04-02T08:09:44Z</time></trkpt><trkpt lat="43.42378501342155" lon="2.314226187457296"><ele>752.0</ele><time>2026-04-02T08:09:45Z</time></trkpt><trkpt lat="43.42375969518078" lon="2.3145560965431518"><ele>748.5</ele><time>2026-04-02T08:09:46Z</time></trkpt><trkpt lat="43.42372637799333" lon="2.314873720760599"><ele>745.0</ele><time>2026-04-02T08:09:47Z</time></trkpt><trkpt lat="43.42369088467959" lon="2.315177192837717"><ele>745.0</ele><time>2026-04-02T08:09:48Z</time></trkpt><trkpt lat="43.42366971494393" lon="2.3154640373120956"><ele>745.0</ele><time>2026-04-02T08:09:49Z</time></trkpt><trkpt lat="43.42366682380369" lon="2.315770556762515"><ele>745.0</ele><time>2026-04-02T08:09:50Z</time></trkpt><trkpt lat="43.42369060796752" lon="2.316054842860895"><ele>745.3333333333334</ele><time>2026-04-02T08:09:51Z</time></trkpt><trkpt lat="43.42373740166162" lon="2.316335279968302"><ele>745.6666666666666</ele><time>2026-04-02T08:09:52Z</time></trkpt><trkpt lat="43.423803861259316" lon="2.316608013053325"><ele>746.0</ele><time>2026-04-02T08:09:53Z</time></trkpt><trkpt lat="43.42386637429166" lon="2.3168724131004526"><ele>747.6666666666666</ele><time>2026-04-02T08:09:54Z</time></trkpt><trkpt lat="43.423926137725644" lon="2.317116763522897"><ele>749.3333333333334</ele><time>2026-04-02T08:09:55Z</time></trkpt><trkpt lat="43.423984984049355" lon="2.3173314753292904"><ele>751.0</ele><time>2026-04-02T08:09:56Z</time></trkpt><trkpt lat="43.42420069865832" lon="2.317449921112919"><ele>752.6666666666667</ele><time>2026-04-02T08:09:57Z</time></trkpt><trkpt lat="43.42431954966821" lon="2.317618288769703"><ele>754.3333333333334</ele><time>2026-04-02T08:09:58Z</time></trkpt><trkpt lat="43.42445078501121" lon="2.3177896294160782"><ele>756.0</ele><time>2026-04-02T08:09:59Z</time></trkpt><trkpt lat="43.424593146465725" lon="2.3179801746260202"><ele>758.0</ele><time>2026-04-02T08:10:00Z</time></trkpt><trkpt lat="43.424748953649534" lon="2.3181966430834384"><ele>760.0</ele><time>2026-04-02T08:10:01Z</time></trkpt><trkpt lat="43.42491552734554" lon="2.318419562772868"><ele>760.0</ele><time>2026-04-02T08:10:02Z</time></trkpt><trkpt lat="43.425079066836226" lon="2.318623172611287"><ele>760.0</ele><time>2026-04-02T08:10:03Z</time></trkpt><trkpt lat="43.42525416863135" lon="2.318834005493833"><ele>759.0</ele><time>2026-04-02T08:10:04Z</time></trkpt><trkpt lat="43.42544366748515" lon="2.319041704622695"><ele>758.0</ele><time>2026-04-02T08:10:05Z</time></trkpt><trkpt lat="43.425627580842935" lon="2.3192303674573775"><ele>758.0</ele><time>2026-04-02T08:10:06Z</time></trkpt><trkpt lat="43.4257949492861" lon="2.3194173005260423"><ele>758.0</ele><time>2026-04-02T08:10:07Z</time></trkpt><trkpt lat="43.42594763212479" lon="2.319637406456588"><ele>758.0</ele><time>2026-04-02T08:10:08Z</time></trkpt><trkpt lat="43.42608128638865" lon="2.319870435642092"><ele>759.0</ele><time>2026-04-02T08:10:09Z</time></trkpt><trkpt lat="43.42618981796506" lon="2.3201259051782155"><ele>760.0</ele><time>2026-04-02T08:10:10Z</time></trkpt><trkpt lat="43.426273973576016" lon="2.3204107643588854"><ele>761.0</ele><time>2026-04-02T08:10:11Z</time></trkpt><trkpt lat="43.42633769351444" lon="2.320699385617115"><ele>761.0</ele><time>2026-04-02T08:10:12Z</time></trkpt><trkpt lat="43.42641336396109" lon="2.320978370904298"><ele>761.0</ele><time>2026-04-02T08:10:13Z</time></trkpt><trkpt lat="43.42652786423965" lon="2.3212388546034735"><ele>761.0</ele><time>2026-04-02T08:10:14Z</time></trkpt><trkpt lat="43.42667824815636" lon="2.3214878561010983"><ele>763.5</ele><time>2026-04-02T08:10:15Z</time></trkpt><trkpt lat="43.42685117231706" lon="2.321722662114587"><ele>766.0</ele><time>2026-04-02T08:10:16Z</time></trkpt><trkpt lat="43.42704233560213" lon="2.3219505464193517"><ele>765.0</ele><time>2026-04-02T08:10:17Z</time></trkpt><trkpt lat="43.42723191172906" lon="2.3221803804656918"><ele>764.0</ele><time>2026-04-02T08:10:18Z</time></trkpt><trkpt lat="43.4274091930056" lon="2.322404391481897"><ele>766.6666666666666</ele><time>2026-04-02T08:10:19Z</time></trkpt><trkpt lat="43.42757228159767" lon="2.3226262480806033"><ele>769.3333333333333</ele><time>2026-04-02T08:10:20Z</time></trkpt><trkpt lat="43.427704509987535" lon="2.3228398791702025"><ele>772.0</ele><time>2026-04-02T08:10:21Z</time></trkpt><trkpt lat="43.42780809687929" lon="2.3230663283624238"><ele>772.0</ele><time>2026-04-02T08:10:22Z</time></trkpt><trkpt lat="43.427875542888955" lon="2.3233098133000207"><ele>772.0</ele><time>2026-04-02T08:10:23Z</time></trkpt><trkpt lat="43.42793245402097" lon="2.3235597575895373"><ele>772.0</ele><time>2026-04-02T08:10:24Z</time></trkpt><trkpt lat="43.42799645431375" lon="2.3238263146351406"><ele>775.0</ele><time>2026-04-02T08:10:25Z</time></trkpt><trkpt lat="43.42798322308124" lon="2.324097088114062"><ele>778.0</ele><time>2026-04-02T08:10:26Z</time></trkpt><trkpt lat="43.4279690173674" lon="2.3243418314201674"><ele>781.0</ele><time>2026-04-02T08:10:27Z</time></trkpt><trkpt lat="43.42798378877273" lon="2.324562846445655"><ele>785.3333333333333</ele><time>2026-04-02T08:10:28Z</time></trkpt><trkpt lat="43.42805135150203" lon="2.324746043657104"><ele>789.6666666666667</ele><time>2026-04-02T08:10:29Z</time></trkpt><trkpt lat="43.42815561676382" lon="2.32488447285475"><ele>794.0</ele><time>2026-04-02T08:10:30Z</time></trkpt><trkpt lat="43.428295559142704" lon="2.3249940413959056"><ele>794.0</ele><time>2026-04-02T08:10:31Z</time></trkpt><trkpt lat="43.42846418233177" lon="2.325073364250157"><ele>794.0</ele><time>2026-04-02T08:10:32Z</time></trkpt><trkpt lat="43.42865816437558" lon="2.3251332968778824"><ele>794.0</ele><time>2026-04-02T08:10:33Z</time></trkpt><trkpt lat="43.428877387035286" lon="2.3251795919702136"><ele>791.0</ele><time>2026-04-02T08:10:34Z</time></trkpt><trkpt lat="43.429090956174754" lon="2.325226180966623"><ele>788.0</ele><time>2026-04-02T08:10:35Z</time></trkpt><trkpt lat="43.42928954451895" lon="2.325279279297881"><ele>785.0</ele><time>2026-04-02T08:10:36Z</time></trkpt><trkpt lat="43.42946474225585" lon="2.3253361984164336"><ele>785.0</ele><time>2026-04-02T08:10:37Z</time></trkpt><trkpt lat="43.42961395122431" lon="2.325411789712221"><ele>785.0</ele><time>2026-04-02T08:10:38Z</time></trkpt><trkpt lat="43.429743204586906" lon="2.3255336389547816"><ele>785.0</ele><time>2026-04-02T08:10:39Z</time></trkpt><trkpt lat="43.429842897001016" lon="2.3257075018463165"><ele>786.3333333333334</ele><time>2026-04-02T08:10:40Z</time></trkpt><trkpt lat="43.42991995200813" lon="2.325917492023692"><ele>787.6666666666667</ele><time>2026-04-02T08:10:41Z</time></trkpt><trkpt lat="43.42998678443375" lon="2.3261627611011937"><ele>789.0</ele><time>2026-04-02T08:10:42Z</time></trkpt><trkpt lat="43.430052131595744" lon="2.3264354560627143"><ele>792.3333333333333</ele><time>2026-04-02T08:10:43Z</time></trkpt><trkpt lat="43.43013409356458" lon="2.3267010692442063"><ele>795.6666666666666</ele><time>2026-04-02T08:10:44Z</time></trkpt><trkpt lat="43.43020818915468" lon="2.326955732249161"><ele>799.0</ele><time>2026-04-02T08:10:45Z</time></trkpt><trkpt lat="43.430339902296225" lon="2.3271756245576816"><ele>796.6666666666666</ele><time>2026-04-02T08:10:46Z</time></trkpt><trkpt lat="43.43052367059967" lon="2.327364712509395"><ele>794.3333333333333</ele><time>2026-04-02T08:10:47Z</time></trkpt><trkpt lat="43.43064702118898" lon="2.3275663381410188"><ele>792.0</ele><time>2026-04-02T08:10:48Z</time></trkpt><trkpt lat="43.43073471755717" lon="2.3277876285655608"><ele>792.0</ele><time>2026-04-02T08:10:49Z</time></trkpt><trkpt lat="43.430831927515214" lon="2.3279898693390955"><ele>792.0</ele><time>2026-04-02T08:10:50Z</time></trkpt><trkpt lat="43.4309727655227" lon="2.328140300125557"><ele>792.0</ele><time>2026-04-02T08:10:51Z</time></trkpt><trkpt lat="43.43115083898287" lon="2.3282548597438923"><ele>792.0</ele><time>2026-04-02T08:10:52Z</time></trkpt><trkpt lat="43.4313431551826" lon="2.328331724206964"><ele>792.0</ele><time>2026-04-02T08:10:53Z</time></trkpt><trkpt lat="43.431535653026486" lon="2.3284232474216733"><ele>792.0</ele><time>2026-04-02T08:10:54Z</time></trkpt><trkpt lat="43.43171601595101" lon="2.3285592920024625"><ele>792.0</ele><time>2026-04-02T08:10:55Z</time></trkpt><trkpt lat="43.43187473553073" lon="2.328745344743464"><ele>792.0</ele><time>2026-04-02T08:10:56Z</time></trkpt><trkpt lat="43.4320174798455" lon="2.3289652034979853"><ele>792.0</ele><time>2026-04-02T08:10:57Z</time></trkpt><trkpt lat="43.432144315697165" lon="2.329191431881573"><ele>793.6666666666667</ele><time>2026-04-02T08:10:58Z</time></trkpt><trkpt lat="43.43225375472289" lon="2.3293903881665723"><ele>795.3333333333334</ele><time>2026-04-02T08:10:59Z</time></trkpt><trkpt lat="43.43234676643264" lon="2.3295422634213225"><ele>797.0</ele><time>2026-04-02T08:11:00Z</time></trkpt><trkpt lat="43.43243948863247" lon="2.329664876250089"><ele>798.6</ele><time>2026-04-02T08:11:01Z</time></trkpt><trkpt lat="43.43253267650745" lon="2.329744032207077"><ele>800.2</ele><time>2026-04-02T08:11:02Z</time></trkpt><trkpt lat="43.43261749153994" lon="2.3297622440453876"><ele>801.8</ele><time>2026-04-02T08:11:03Z</time></trkpt><trkpt lat="43.4327045704561" lon="2.3298028272556173"><ele>803.4</ele><time>2026-04-02T08:11:04Z</time></trkpt><trkpt lat="43.432786739089856" lon="2.3298282910359083"><ele>805.0</ele><time>2026-04-02T08:11:05Z</time></trkpt><trkpt lat="43.43288664386797" lon="2.3298563272169925"><ele>803.0</ele><time>2026-04-02T08:11:06Z</time></trkpt><trkpt lat="43.43298657366007" lon="2.3298591860083135"><ele>801.0</ele><time>2026-04-02T08:11:07Z</time></trkpt><trkpt lat="43.43308894211458" lon="2.3299029993610616"><ele>799.0</ele><time>2026-04-02T08:11:08Z</time></trkpt><trkpt lat="43.433187493968134" lon="2.3299170252512638"><ele>797.0</ele><time>2026-04-02T08:11:09Z</time></trkpt><trkpt lat="43.433283812580804" lon="2.329938016660047"><ele>795.0</ele><time>2026-04-02T08:11:10Z</time></trkpt><trkpt lat="43.433383701736616" lon="2.3299611141438787"><ele>795.0</ele><time>2026-04-02T08:11:11Z</time></trkpt><trkpt lat="43.43348573956132" lon="2.3300037853145343"><ele>795.0</ele><time>2026-04-02T08:11:12Z</time></trkpt><trkpt lat="43.43359042448026" lon="2.330070169317209"><ele>795.0</ele><time>2026-04-02T08:11:13Z</time></trkpt><trkpt lat="43.433697813018775" lon="2.3301600411594787"><ele>795.0</ele><time>2026-04-02T08:11:14Z</time></trkpt><trkpt lat="43.4337853234699" lon="2.330251068856627"><ele>794.6</ele><time>2026-04-02T08:11:15Z</time></trkpt><trkpt lat="43.4338548974523" lon="2.33035062659874"><ele>794.2</ele><time>2026-04-02T08:11:16Z</time></trkpt><trkpt lat="43.43392345964046" lon="2.330461874126666"><ele>793.8</ele><time>2026-04-02T08:11:17Z</time></trkpt><trkpt lat="43.433996985401706" lon="2.3305835231787544"><ele>793.4</ele><time>2026-04-02T08:11:18Z</time></trkpt><trkpt lat="43.43407686628175" lon="2.3307125373149455"><ele>793.0</ele><time>2026-04-02T08:11:19Z</time></trkpt><trkpt lat="43.43416253577056" lon="2.3308474990966714"><ele>794.25</ele><time>2026-04-02T08:11:20Z</time></trkpt><trkpt lat="43.434253455899295" lon="2.330989939550157"><ele>795.5</ele><time>2026-04-02T08:11:21Z</time></trkpt><trkpt lat="43.43434772566124" lon="2.331146528670973"><ele>796.75</ele><time>2026-04-02T08:11:22Z</time></trkpt><trkpt lat="43.43443455499565" lon="2.331298292058762"><ele>798.0</ele><time>2026-04-02T08:11:23Z</time></trkpt><trkpt lat="43.43452010897046" lon="2.3314246879192986"><ele>798.5999999999999</ele><time>2026-04-02T08:11:24Z</time></trkpt><trkpt lat="43.434606614870276" lon="2.3315337953984367"><ele>799.1999999999999</ele><time>2026-04-02T08:11:25Z</time></trkpt><trkpt lat="43.43470466370537" lon="2.331600542903113"><ele>799.8</ele><time>2026-04-02T08:11:26Z</time></trkpt><trkpt lat="43.43481246424234" lon="2.3316243782522466"><ele>800.4</ele><time>2026-04-02T08:11:27Z</time></trkpt><trkpt lat="43.434922824860344" lon="2.3316151356505705"><ele>801.0</ele><time>2026-04-02T08:11:28Z</time></trkpt><trkpt lat="43.43503551282706" lon="2.331584681414613"><ele>801.25</ele><time>2026-04-02T08:11:29Z</time></trkpt><trkpt lat="43.43516626204561" lon="2.3315406565519115"><ele>801.5</ele><time>2026-04-02T08:11:30Z</time></trkpt><trkpt lat="43.43530906484273" lon="2.331490778380032"><ele>801.75</ele><time>2026-04-02T08:11:31Z</time></trkpt><trkpt lat="43.43545294980254" lon="2.3314421328380868"><ele>802.0</ele><time>2026-04-02T08:11:32Z</time></trkpt><trkpt lat="43.435589746723714" lon="2.3314046829114465"><ele>803.5</ele><time>2026-04-02T08:11:33Z</time></trkpt><trkpt lat="43.435718269923164" lon="2.331382334903093"><ele>805.0</ele><time>2026-04-02T08:11:34Z</time></trkpt><trkpt lat="43.43583648458338" lon="2.331385873916007"><ele>806.5</ele><time>2026-04-02T08:11:35Z</time></trkpt><trkpt lat="43.4359398720761" lon="2.3314246895548583"><ele>808.0</ele><time>2026-04-02T08:11:36Z</time></trkpt><trkpt lat="43.43601080049527" lon="2.3315284519701978"><ele>808.0</ele><time>2026-04-02T08:11:37Z</time></trkpt><trkpt lat="43.43608046552026" lon="2.331646546369475"><ele>808.0</ele><time>2026-04-02T08:11:38Z</time></trkpt><trkpt lat="43.43615888552235" lon="2.331792541805044"><ele>808.0</ele><time>2026-04-02T08:11:39Z</time></trkpt><trkpt lat="43.43622835259881" lon="2.3319878372868788"><ele>808.0</ele><time>2026-04-02T08:11:40Z</time></trkpt><trkpt lat="43.43631118369996" lon="2.3322021982282877"><ele>807.0</ele><time>2026-04-02T08:11:41Z</time></trkpt><trkpt lat="43.43639980849661" lon="2.3324136226057335"><ele>806.0</ele><time>2026-04-02T08:11:42Z</time></trkpt><trkpt lat="43.436493994660474" lon="2.332619368176718"><ele>805.0</ele><time>2026-04-02T08:11:43Z</time></trkpt><trkpt lat="43.43659265875246" lon="2.3328147026451025"><ele>805.0</ele><time>2026-04-02T08:11:44Z</time></trkpt><trkpt lat="43.436707825646906" lon="2.3329808460127888"><ele>805.0</ele><time>2026-04-02T08:11:45Z</time></trkpt><trkpt lat="43.43685080719863" lon="2.3330899310623856"><ele>805.0</ele><time>2026-04-02T08:11:46Z</time></trkpt><trkpt lat="43.43701556050272" lon="2.3331468718279442"><ele>805.3333333333333</ele><time>2026-04-02T08:11:47Z</time></trkpt><trkpt lat="43.43719190177823" lon="2.3331487735680057"><ele>805.6666666666667</ele><time>2026-04-02T08:11:48Z</time></trkpt><trkpt lat="43.43736792088806" lon="2.3331013463399777"><ele>806.0</ele><time>2026-04-02T08:11:49Z</time></trkpt><trkpt lat="43.43754876145844" lon="2.3330496464450174"><ele>806.0</ele><time>2026-04-02T08:11:50Z</time></trkpt><trkpt lat="43.43773295287315" lon="2.3330485291907825"><ele>806.0</ele><time>2026-04-02T08:11:51Z</time></trkpt><trkpt lat="43.43792560539789" lon="2.3330574031449833"><ele>806.0</ele><time>2026-04-02T08:11:52Z</time></trkpt><trkpt lat="43.43810870043448" lon="2.3330546548902875"><ele>807.0</ele><time>2026-04-02T08:11:53Z</time></trkpt><trkpt lat="43.43831206937447" lon="2.3330787782441784"><ele>808.0</ele><time>2026-04-02T08:11:54Z</time></trkpt><trkpt lat="43.43850621066637" lon="2.3331010354648023"><ele>809.0</ele><time>2026-04-02T08:11:55Z</time></trkpt><trkpt lat="43.438694390140675" lon="2.333125713722565"><ele>809.3333333333334</ele><time>2026-04-02T08:11:56Z</time></trkpt><trkpt lat="43.438878709650865" lon="2.3331689940471056"><ele>809.6666666666667</ele><time>2026-04-02T08:11:57Z</time></trkpt><trkpt lat="43.43906295986581" lon="2.333241544656518"><ele>810.0</ele><time>2026-04-02T08:11:58Z</time></trkpt><trkpt lat="43.43924081265404" lon="2.3333650706054274"><ele>810.0</ele><time>2026-04-02T08:11:59Z</time></trkpt><trkpt lat="43.43942985337839" lon="2.333449573512286"><ele>810.0</ele><time>2026-04-02T08:12:00Z</time></trkpt><trkpt lat="43.43961581005251" lon="2.3335497862066927"><ele>810.0</ele><time>2026-04-02T08:12:01Z</time></trkpt><trkpt lat="43.43978652651854" lon="2.333653366169166"><ele>810.0</ele><time>2026-04-02T08:12:02Z</time></trkpt><trkpt lat="43.439953296895624" lon="2.3337625799837074"><ele>810.0</ele><time>2026-04-02T08:12:03Z</time></trkpt><trkpt lat="43.440150728943394" lon="2.333812172451271"><ele>810.0</ele><time>2026-04-02T08:12:04Z</time></trkpt><trkpt lat="43.44030859395666" lon="2.333908307234887"><ele>811.3333333333333</ele><time>2026-04-02T08:12:05Z</time></trkpt><trkpt lat="43.440443214016355" lon="2.334026125013008"><ele>812.6666666666666</ele><time>2026-04-02T08:12:06Z</time></trkpt><trkpt lat="43.44055465309037" lon="2.3341769650061015"><ele>814.0</ele><time>2026-04-02T08:12:07Z</time></trkpt><trkpt lat="43.44063464641997" lon="2.334361551063716"><ele>814.0</ele><time>2026-04-02T08:12:08Z</time></trkpt><trkpt lat="43.44068174216639" lon="2.3345752709920413"><ele>814.0</ele><time>2026-04-02T08:12:09Z</time></trkpt><trkpt lat="43.4406974414133" lon="2.3348108877881595"><ele>814.0</ele><time>2026-04-02T08:12:10Z</time></trkpt><trkpt lat="43.44069848372892" lon="2.3350513845008027"><ele>812.0</ele><time>2026-04-02T08:12:11Z</time></trkpt><trkpt lat="43.44073701185062" lon="2.3352871082787074"><ele>810.0</ele><time>2026-04-02T08:12:12Z</time></trkpt><trkpt lat="43.440823550722726" lon="2.335501916907869"><ele>808.0</ele><time>2026-04-02T08:12:13Z</time></trkpt><trkpt lat="43.44094866322971" lon="2.3356897697273666"><ele>808.6666666666666</ele><time>2026-04-02T08:12:14Z</time></trkpt><trkpt lat="43.44108390924563" lon="2.335870973346441"><ele>809.3333333333333</ele><time>2026-04-02T08:12:15Z</time></trkpt><trkpt lat="43.44122138313866" lon="2.3360440387833448"><ele>810.0</ele><time>2026-04-02T08:12:16Z</time></trkpt><trkpt lat="43.44135922891561" lon="2.336187747554298"><ele>810.0</ele><time>2026-04-02T08:12:17Z</time></trkpt><trkpt lat="43.44151160560575" lon="2.336285515760456"><ele>810.0</ele><time>2026-04-02T08:12:18Z</time></trkpt><trkpt lat="43.44167175690988" lon="2.3363299342351223"><ele>810.0</ele><time>2026-04-02T08:12:19Z</time></trkpt><trkpt lat="43.44182995886923" lon="2.336343545800054"><ele>810.0</ele><time>2026-04-02T08:12:20Z</time></trkpt><trkpt lat="43.44198971661014" lon="2.3363790018728534"><ele>810.0</ele><time>2026-04-02T08:12:21Z</time></trkpt><trkpt lat="43.4421375696448" lon="2.3364556143525625"><ele>810.0</ele><time>2026-04-02T08:12:22Z</time></trkpt><trkpt lat="43.442273157020594" lon="2.336600545446443"><ele>807.6666666666667</ele><time>2026-04-02T08:12:23Z</time></trkpt><trkpt lat="43.44238292789119" lon="2.3367920567519804"><ele>805.3333333333334</ele><time>2026-04-02T08:12:24Z</time></trkpt><trkpt lat="43.442432775290186" lon="2.337014844015101"><ele>803.0</ele><time>2026-04-02T08:12:25Z</time></trkpt><trkpt lat="43.44245653767236" lon="2.337249487985092"><ele>799.3333333333334</ele><time>2026-04-02T08:12:26Z</time></trkpt><trkpt lat="43.442449324616234" lon="2.3374824061513264"><ele>795.6666666666667</ele><time>2026-04-02T08:12:27Z</time></trkpt><trkpt lat="43.4424204439318" lon="2.3377126553296774"><ele>792.0</ele><time>2026-04-02T08:12:28Z</time></trkpt><trkpt lat="43.44240612419621" lon="2.337930337250504"><ele>790.0</ele><time>2026-04-02T08:12:29Z</time></trkpt><trkpt lat="43.44243250381802" lon="2.3381486346497553"><ele>788.0</ele><time>2026-04-02T08:12:30Z</time></trkpt><trkpt lat="43.44250523214467" lon="2.3383598762155238"><ele>786.0</ele><time>2026-04-02T08:12:31Z</time></trkpt><trkpt lat="43.442620275961204" lon="2.3385400223236443"><ele>786.0</ele><time>2026-04-02T08:12:32Z</time></trkpt><trkpt lat="43.442762780592034" lon="2.3386661399641944"><ele>786.0</ele><time>2026-04-02T08:12:33Z</time></trkpt><trkpt lat="43.44292070582766" lon="2.338736794625421"><ele>786.0</ele><time>2026-04-02T08:12:34Z</time></trkpt><trkpt lat="43.44309435505674" lon="2.3387529282255626"><ele>785.0</ele><time>2026-04-02T08:12:35Z</time></trkpt><trkpt lat="43.44325840168311" lon="2.338709153808574"><ele>784.0</ele><time>2026-04-02T08:12:36Z</time></trkpt><trkpt lat="43.443412674629414" lon="2.3386027844970068"><ele>783.0</ele><time>2026-04-02T08:12:37Z</time></trkpt><trkpt lat="43.44355516070287" lon="2.338448023686492"><ele>783.0</ele><time>2026-04-02T08:12:38Z</time></trkpt><trkpt lat="43.4436881663305" lon="2.3382516616710762"><ele>783.0</ele><time>2026-04-02T08:12:39Z</time></trkpt><trkpt lat="43.44381846736969" lon="2.3380311387778474"><ele>783.0</ele><time>2026-04-02T08:12:40Z</time></trkpt><trkpt lat="43.44394980860992" lon="2.3378105400413602"><ele>781.0</ele><time>2026-04-02T08:12:41Z</time></trkpt><trkpt lat="43.44407557786357" lon="2.3376126370540184"><ele>779.0</ele><time>2026-04-02T08:12:42Z</time></trkpt><trkpt lat="43.444219470573145" lon="2.337433695548486"><ele>777.0</ele><time>2026-04-02T08:12:43Z</time></trkpt><trkpt lat="43.44440240833223" lon="2.3373099394557335"><ele>777.6666666666667</ele><time>2026-04-02T08:12:44Z</time></trkpt><trkpt lat="43.44457905256238" lon="2.3371866571626234"><ele>778.3333333333334</ele><time>2026-04-02T08:12:45Z</time></trkpt><trkpt lat="43.44473642390812" lon="2.337070021084003"><ele>779.0</ele><time>2026-04-02T08:12:46Z</time></trkpt><trkpt lat="43.44489088629887" lon="2.3369839781286035"><ele>779.0</ele><time>2026-04-02T08:12:47Z</time></trkpt><trkpt lat="43.445038587085264" lon="2.336911502781394"><ele>779.0</ele><time>2026-04-02T08:12:48Z</time></trkpt><trkpt lat="43.44518653994844" lon="2.3368841643941005"><ele>779.0</ele><time>2026-04-02T08:12:49Z</time></trkpt><trkpt lat="43.44533446570792" lon="2.3369265901940905"><ele>775.6666666666667</ele><time>2026-04-02T08:12:50Z</time></trkpt><trkpt lat="43.44547762798659" lon="2.337018888307426"><ele>772.3333333333333</ele><time>2026-04-02T08:12:51Z</time></trkpt><trkpt lat="43.445609379155904" lon="2.337153093440887"><ele>769.0</ele><time>2026-04-02T08:12:52Z</time></trkpt><trkpt lat="43.44571162513619" lon="2.3373286483421216"><ele>767.6666666666666</ele><time>2026-04-02T08:12:53Z</time></trkpt><trkpt lat="43.445769938437145" lon="2.337535831762535"><ele>766.3333333333333</ele><time>2026-04-02T08:12:54Z</time></trkpt><trkpt lat="43.4457780044001" lon="2.3377614516766254"><ele>765.0</ele><time>2026-04-02T08:12:55Z</time></trkpt><trkpt lat="43.44574990022757" lon="2.3379872518145994"><ele>766.0</ele><time>2026-04-02T08:12:56Z</time></trkpt><trkpt lat="43.44568706678933" lon="2.338204551717507"><ele>767.0</ele><time>2026-04-02T08:12:57Z</time></trkpt><trkpt lat="43.44560713268434" lon="2.3384112482723016"><ele>768.0</ele><time>2026-04-02T08:12:58Z</time></trkpt><trkpt lat="43.44551525098454" lon="2.338605959788433"><ele>764.0</ele><time>2026-04-02T08:12:59Z</time></trkpt><trkpt lat="43.445433918132615" lon="2.3387971193112755"><ele>760.0</ele><time>2026-04-02T08:13:00Z</time></trkpt><trkpt lat="43.44535790908257" lon="2.3389930842341022"><ele>756.0</ele><time>2026-04-02T08:13:01Z</time></trkpt><trkpt lat="43.44528541203944" lon="2.339191795440652"><ele>755.3333333333334</ele><time>2026-04-02T08:13:02Z</time></trkpt><trkpt lat="43.44522979919389" lon="2.3394136006676907"><ele>754.6666666666667</ele><time>2026-04-02T08:13:03Z</time></trkpt><trkpt lat="43.44520179028736" lon="2.3396670310025938"><ele>754.0</ele><time>2026-04-02T08:13:04Z</time></trkpt><trkpt lat="43.4452108049041" lon="2.3399466404052007"><ele>753.3333333333334</ele><time>2026-04-02T08:13:05Z</time></trkpt><trkpt lat="43.44524426052394" lon="2.340234365139696"><ele>752.6666666666666</ele><time>2026-04-02T08:13:06Z</time></trkpt><trkpt lat="43.44528246442137" lon="2.340523439311831"><ele>752.0</ele><time>2026-04-02T08:13:07Z</time></trkpt><trkpt lat="43.445316885959976" lon="2.340800215384882"><ele>751.3333333333333</ele><time>2026-04-02T08:13:08Z</time></trkpt><trkpt lat="43.44534811641163" lon="2.34106338757974"><ele>750.6666666666666</ele><time>2026-04-02T08:13:09Z</time></trkpt><trkpt lat="43.44538475511614" lon="2.341313012833407"><ele>750.0</ele><time>2026-04-02T08:13:10Z</time></trkpt><trkpt lat="43.445455828679286" lon="2.341537128992074"><ele>751.3333333333334</ele><time>2026-04-02T08:13:11Z</time></trkpt><trkpt lat="43.44557575148417" lon="2.341746734629547"><ele>752.6666666666667</ele><time>2026-04-02T08:13:12Z</time></trkpt><trkpt lat="43.44571438107519" lon="2.3419498538565056"><ele>754.0</ele><time>2026-04-02T08:13:13Z</time></trkpt><trkpt lat="43.4458487044962" lon="2.3421743678844233"><ele>751.6666666666667</ele><time>2026-04-02T08:13:14Z</time></trkpt><trkpt lat="43.445973536266294" lon="2.3424061447852087"><ele>749.3333333333334</ele><time>2026-04-02T08:13:15Z</time></trkpt><trkpt lat="43.446097733541045" lon="2.342630409914232"><ele>747.0</ele><time>2026-04-02T08:13:16Z</time></trkpt><trkpt lat="43.44622415214443" lon="2.3428502837607383"><ele>748.3333333333334</ele><time>2026-04-02T08:13:17Z</time></trkpt><trkpt lat="43.446343810051495" lon="2.3430750469101307"><ele>749.6666666666667</ele><time>2026-04-02T08:13:18Z</time></trkpt><trkpt lat="43.44644027731152" lon="2.3433299436054504"><ele>751.0</ele><time>2026-04-02T08:13:19Z</time></trkpt><trkpt lat="43.44649613382692" lon="2.343607088548076"><ele>747.3333333333334</ele><time>2026-04-02T08:13:20Z</time></trkpt><trkpt lat="43.44652783155669" lon="2.3438923000779694"><ele>743.6666666666666</ele><time>2026-04-02T08:13:21Z</time></trkpt><trkpt lat="43.446571234208015" lon="2.3441723135096604"><ele>740.0</ele><time>2026-04-02T08:13:22Z</time></trkpt><trkpt lat="43.44665506187002" lon="2.344448304269299"><ele>740.0</ele><time>2026-04-02T08:13:23Z</time></trkpt><trkpt lat="43.446756939920554" lon="2.344708354778001"><ele>740.0</ele><time>2026-04-02T08:13:24Z</time></trkpt><trkpt lat="43.44687772650836" lon="2.3449455873973197"><ele>740.0</ele><time>2026-04-02T08:13:25Z</time></trkpt><trkpt lat="43.44703350747817" lon="2.345146284721274"><ele>739.6666666666666</ele><time>2026-04-02T08:13:26Z</time></trkpt><trkpt lat="43.44721894337423" lon="2.3453063617047123"><ele>739.3333333333334</ele><time>2026-04-02T08:13:27Z</time></trkpt><trkpt lat="43.44742370160801" lon="2.345420828561396"><ele>739.0</ele><time>2026-04-02T08:13:28Z</time></trkpt><trkpt lat="43.4476391755689" lon="2.345492280507033"><ele>735.3333333333334</ele><time>2026-04-02T08:13:29Z</time></trkpt><trkpt lat="43.44786036688536" lon="2.3455503255460743"><ele>731.6666666666666</ele><time>2026-04-02T08:13:30Z</time></trkpt><trkpt lat="43.44807864434858" lon="2.3456107707492317"><ele>728.0</ele><time>2026-04-02T08:13:31Z</time></trkpt><trkpt lat="43.44829700582294" lon="2.345677288139661"><ele>728.0</ele><time>2026-04-02T08:13:32Z</time></trkpt><trkpt lat="43.448514380187355" lon="2.34574818897803"><ele>728.0</ele><time>2026-04-02T08:13:33Z</time></trkpt><trkpt lat="43.448728089430524" lon="2.34581690236325"><ele>728.0</ele><time>2026-04-02T08:13:34Z</time></trkpt><trkpt lat="43.4489375567698" lon="2.3458830702010927"><ele>728.6666666666666</ele><time>2026-04-02T08:13:35Z</time></trkpt><trkpt lat="43.449137976733745" lon="2.3459633242601297"><ele>729.3333333333334</ele><time>2026-04-02T08:13:36Z</time></trkpt><trkpt lat="43.44932787373044" lon="2.3460736231670265"><ele>730.0</ele><time>2026-04-02T08:13:37Z</time></trkpt><trkpt lat="43.44949311922549" lon="2.3462459670926505"><ele>727.3333333333334</ele><time>2026-04-02T08:13:38Z</time></trkpt><trkpt lat="43.4496312093376" lon="2.346447202562232"><ele>724.6666666666666</ele><time>2026-04-02T08:13:39Z</time></trkpt><trkpt lat="43.44974889753173" lon="2.3466636233670815"><ele>722.0</ele><time>2026-04-02T08:13:40Z</time></trkpt><trkpt lat="43.44983371419616" lon="2.346893613120489"><ele>722.0</ele><time>2026-04-02T08:13:41Z</time></trkpt><trkpt lat="43.44990132133488" lon="2.34712763596021"><ele>722.0</ele><time>2026-04-02T08:13:42Z</time></trkpt><trkpt lat="43.44996000585671" lon="2.3473597659207988"><ele>722.0</ele><time>2026-04-02T08:13:43Z</time></trkpt><trkpt lat="43.45000537064945" lon="2.3476024811942873"><ele>719.0</ele><time>2026-04-02T08:13:44Z</time></trkpt><trkpt lat="43.45005845874742" lon="2.347842984191456"><ele>716.0</ele><time>2026-04-02T08:13:45Z</time></trkpt><trkpt lat="43.45012619921021" lon="2.348074802051768"><ele>713.0</ele><time>2026-04-02T08:13:46Z</time></trkpt><trkpt lat="43.45021870738428" lon="2.3482925914292903"><ele>713.0</ele><time>2026-04-02T08:13:47Z</time></trkpt><trkpt lat="43.45034128001982" lon="2.348483906878731"><ele>713.0</ele><time>2026-04-02T08:13:48Z</time></trkpt><trkpt lat="43.45048903166172" lon="2.348651327255474"><ele>713.0</ele><time>2026-04-02T08:13:49Z</time></trkpt><trkpt lat="43.45065601892007" lon="2.3487953760528537"><ele>712.3333333333333</ele><time>2026-04-02T08:13:50Z</time></trkpt><trkpt lat="43.45084467257204" lon="2.3488972699639654"><ele>711.6666666666666</ele><time>2026-04-02T08:13:51Z</time></trkpt><trkpt lat="43.4510421153479" lon="2.348951729436868"><ele>711.0</ele><time>2026-04-02T08:13:52Z</time></trkpt><trkpt lat="43.451241005420044" lon="2.34896239524148"><ele>711.0</ele><time>2026-04-02T08:13:53Z</time></trkpt><trkpt lat="43.45143681138523" lon="2.348929365065724"><ele>711.0</ele><time>2026-04-02T08:13:54Z</time></trkpt><trkpt lat="43.451630077668675" lon="2.348856342050462"><ele>711.0</ele><time>2026-04-02T08:13:55Z</time></trkpt><trkpt lat="43.45181339121483" lon="2.348750209321943"><ele>711.0</ele><time>2026-04-02T08:13:56Z</time></trkpt><trkpt lat="43.45199544491681" lon="2.3486211114563535"><ele>711.0</ele><time>2026-04-02T08:13:57Z</time></trkpt><trkpt lat="43.4521912324101" lon="2.3485397662322707"><ele>711.0</ele><time>2026-04-02T08:13:58Z</time></trkpt><trkpt lat="43.452381529132325" lon="2.3484304884913625"><ele>707.5</ele><time>2026-04-02T08:13:59Z</time></trkpt><trkpt lat="43.45252166590941" lon="2.3481544632189113"><ele>704.0</ele><time>2026-04-02T08:14:00Z</time></trkpt><trkpt lat="43.452697139831905" lon="2.3479953227701538"><ele>704.0</ele><time>2026-04-02T08:14:01Z</time></trkpt><trkpt lat="43.45287815839738" lon="2.347842963480643"><ele>704.0</ele><time>2026-04-02T08:14:02Z</time></trkpt><trkpt lat="43.453066563430696" lon="2.3477036235511886"><ele>704.0</ele><time>2026-04-02T08:14:03Z</time></trkpt><trkpt lat="43.4532684305571" lon="2.347594256403719"><ele>701.6666666666666</ele><time>2026-04-02T08:14:04Z</time></trkpt><trkpt lat="43.45348459259898" lon="2.3475308179603553"><ele>699.3333333333334</ele><time>2026-04-02T08:14:05Z</time></trkpt><trkpt lat="43.45370869024099" lon="2.3475122658306677"><ele>697.0</ele><time>2026-04-02T08:14:06Z</time></trkpt><trkpt lat="43.45394430566785" lon="2.347542728043598"><ele>694.5</ele><time>2026-04-02T08:14:07Z</time></trkpt><trkpt lat="43.454187867329516" lon="2.3476027647289546"><ele>692.0</ele><time>2026-04-02T08:14:08Z</time></trkpt><trkpt lat="43.45442915161746" lon="2.3476683432407848"><ele>691.5</ele><time>2026-04-02T08:14:09Z</time></trkpt><trkpt lat="43.45467406727097" lon="2.347731874861563"><ele>691.0</ele><time>2026-04-02T08:14:10Z</time></trkpt><trkpt lat="43.454923234269586" lon="2.347761286682441"><ele>691.0</ele><time>2026-04-02T08:14:11Z</time></trkpt><trkpt lat="43.45516997743765" lon="2.3477512543702463"><ele>691.0</ele><time>2026-04-02T08:14:12Z</time></trkpt><trkpt lat="43.45541953972088" lon="2.347739487661008"><ele>693.0</ele><time>2026-04-02T08:14:13Z</time></trkpt><trkpt lat="43.4556688935515" lon="2.3477374302586633"><ele>695.0</ele><time>2026-04-02T08:14:14Z</time></trkpt><trkpt lat="43.45591596627157" lon="2.3477449896050495"><ele>695.0</ele><time>2026-04-02T08:14:15Z</time></trkpt><trkpt lat="43.45616270423244" lon="2.3477351899530454"><ele>695.0</ele><time>2026-04-02T08:14:16Z</time></trkpt><trkpt lat="43.45640778016485" lon="2.347709766168538"><ele>696.0</ele><time>2026-04-02T08:14:17Z</time></trkpt><trkpt lat="43.456650084575266" lon="2.347676053742254"><ele>697.0</ele><time>2026-04-02T08:14:18Z</time></trkpt><trkpt lat="43.4568874669144" lon="2.347621806903095"><ele>696.5</ele><time>2026-04-02T08:14:19Z</time></trkpt><trkpt lat="43.457122285848605" lon="2.3475425700132173"><ele>696.0</ele><time>2026-04-02T08:14:20Z</time></trkpt><trkpt lat="43.45735166451558" lon="2.3474587937465836"><ele>696.0</ele><time>2026-04-02T08:14:21Z</time></trkpt><trkpt lat="43.457583402098656" lon="2.3473725471766596"><ele>696.0</ele><time>2026-04-02T08:14:22Z</time></trkpt><trkpt lat="43.4578129008446" lon="2.3472781854628857"><ele>690.5</ele><time>2026-04-02T08:14:23Z</time></trkpt><trkpt lat="43.45804355474095" lon="2.347188881317559"><ele>685.0</ele><time>2026-04-02T08:14:24Z</time></trkpt><trkpt lat="43.45827958108673" lon="2.3471139388104"><ele>685.0</ele><time>2026-04-02T08:14:25Z</time></trkpt><trkpt lat="43.45851856231231" lon="2.347058630480222"><ele>685.0</ele><time>2026-04-02T08:14:26Z</time></trkpt><trkpt lat="43.458763498230226" lon="2.3470416131287775"><ele>680.5</ele><time>2026-04-02T08:14:27Z</time></trkpt><trkpt lat="43.45900265163214" lon="2.3470605250932803"><ele>676.0</ele><time>2026-04-02T08:14:28Z</time></trkpt><trkpt lat="43.45923133495251" lon="2.347105335117935"><ele>676.0</ele><time>2026-04-02T08:14:29Z</time></trkpt><trkpt lat="43.459448619539685" lon="2.347170145365968"><ele>676.0</ele><time>2026-04-02T08:14:30Z</time></trkpt><trkpt lat="43.45966223543861" lon="2.34725450461016"><ele>676.0</ele><time>2026-04-02T08:14:31Z</time></trkpt><trkpt lat="43.45986845117034" lon="2.3473466839348496"><ele>675.0</ele><time>2026-04-02T08:14:32Z</time></trkpt><trkpt lat="43.460066674252246" lon="2.3474128900385716"><ele>674.0</ele><time>2026-04-02T08:14:33Z</time></trkpt><trkpt lat="43.46026262394639" lon="2.347436881558264"><ele>673.0</ele><time>2026-04-02T08:14:34Z</time></trkpt><trkpt lat="43.46045234024651" lon="2.3474698291017466"><ele>672.0</ele><time>2026-04-02T08:14:35Z</time></trkpt><trkpt lat="43.460621992152234" lon="2.3475688608043015"><ele>671.0</ele><time>2026-04-02T08:14:36Z</time></trkpt><trkpt lat="43.460778458044594" lon="2.347735618042627"><ele>670.0</ele><time>2026-04-02T08:14:37Z</time></trkpt><trkpt lat="43.46090483696369" lon="2.3479314873443458"><ele>668.0</ele><time>2026-04-02T08:14:38Z</time></trkpt><trkpt lat="43.46101153101436" lon="2.3481627019265865"><ele>666.0</ele><time>2026-04-02T08:14:39Z</time></trkpt><trkpt lat="43.46109162124044" lon="2.348410074111297"><ele>664.0</ele><time>2026-04-02T08:14:40Z</time></trkpt><trkpt lat="43.461169397417564" lon="2.3486699261534505"><ele>663.0</ele><time>2026-04-02T08:14:41Z</time></trkpt><trkpt lat="43.46125536224792" lon="2.348912366948377"><ele>662.0</ele><time>2026-04-02T08:14:42Z</time></trkpt><trkpt lat="43.46134415463167" lon="2.3491351825305293"><ele>661.0</ele><time>2026-04-02T08:14:43Z</time></trkpt><trkpt lat="43.46144731349873" lon="2.3493419323688705"><ele>661.0</ele><time>2026-04-02T08:14:44Z</time></trkpt><trkpt lat="43.461582807339056" lon="2.3495020375136746"><ele>661.0</ele><time>2026-04-02T08:14:45Z</time></trkpt><trkpt lat="43.46174973002083" lon="2.349625195908828"><ele>661.0</ele><time>2026-04-02T08:14:46Z</time></trkpt><trkpt lat="43.46193247551957" lon="2.3496981790901943"><ele>654.6666666666667</ele><time>2026-04-02T08:14:47Z</time></trkpt><trkpt lat="43.46211721799513" lon="2.349746811426189"><ele>648.3333333333334</ele><time>2026-04-02T08:14:48Z</time></trkpt><trkpt lat="43.4622889732144" lon="2.3498392625323947"><ele>642.0</ele><time>2026-04-02T08:14:49Z</time></trkpt><trkpt lat="43.46244164159513" lon="2.3500058747327954"><ele>642.0</ele><time>2026-04-02T08:14:50Z</time></trkpt><trkpt lat="43.462559310162575" lon="2.350223774653585"><ele>642.0</ele><time>2026-04-02T08:14:51Z</time></trkpt><trkpt lat="43.46263709574784" lon="2.350469677890785"><ele>642.0</ele><time>2026-04-02T08:14:52Z</time></trkpt><trkpt lat="43.462693659301614" lon="2.35076851895491"><ele>640.0</ele><time>2026-04-02T08:14:53Z</time></trkpt><trkpt lat="43.46275335503608" lon="2.3510885206549164"><ele>638.0</ele><time>2026-04-02T08:14:54Z</time></trkpt><trkpt lat="43.46283274971983" lon="2.351411650537159"><ele>633.5</ele><time>2026-04-02T08:14:55Z</time></trkpt><trkpt lat="43.46291231462775" lon="2.3517074687050292"><ele>629.0</ele><time>2026-04-02T08:14:56Z</time></trkpt><trkpt lat="43.46298600832833" lon="2.3520010713149513"><ele>634.5</ele><time>2026-04-02T08:14:57Z</time></trkpt><trkpt lat="43.4630652587895" lon="2.352289590987314"><ele>640.0</ele><time>2026-04-02T08:14:58Z</time></trkpt><trkpt lat="43.463142529367" lon="2.3525919059271097"><ele>640.0</ele><time>2026-04-02T08:14:59Z</time></trkpt><trkpt lat="43.46322207678612" lon="2.3528923517251332"><ele>640.0</ele><time>2026-04-02T08:15:00Z</time></trkpt><trkpt lat="43.463298075172354" lon="2.3531952073008267"><ele>636.0</ele><time>2026-04-02T08:15:01Z</time></trkpt><trkpt lat="43.46336552988811" lon="2.353481620668792"><ele>632.0</ele><time>2026-04-02T08:15:02Z</time></trkpt><trkpt lat="43.463421813508624" lon="2.353746734185237"><ele>628.0</ele><time>2026-04-02T08:15:03Z</time></trkpt><trkpt lat="43.46346796722545" lon="2.353974037361974"><ele>629.0</ele><time>2026-04-02T08:15:04Z</time></trkpt><trkpt lat="43.46352833384397" lon="2.354166867903981"><ele>630.0</ele><time>2026-04-02T08:15:05Z</time></trkpt><trkpt lat="43.46362009392394" lon="2.3543226223699754"><ele>631.0</ele><time>2026-04-02T08:15:06Z</time></trkpt><trkpt lat="43.463740396401796" lon="2.354413254752228"><ele>632.0</ele><time>2026-04-02T08:15:07Z</time></trkpt><trkpt lat="43.46388786106012" lon="2.3544734999977717"><ele>632.0</ele><time>2026-04-02T08:15:08Z</time></trkpt><trkpt lat="43.464043497035156" lon="2.35454787739242"><ele>632.0</ele><time>2026-04-02T08:15:09Z</time></trkpt><trkpt lat="43.46419339412415" lon="2.3546301079728456"><ele>632.0</ele><time>2026-04-02T08:15:10Z</time></trkpt><trkpt lat="43.46433575896513" lon="2.354734571083807"><ele>626.5</ele><time>2026-04-02T08:15:11Z</time></trkpt><trkpt lat="43.464444911065456" lon="2.3548725656939284"><ele>621.0</ele><time>2026-04-02T08:15:12Z</time></trkpt><trkpt lat="43.46451058003643" lon="2.355043183777166"><ele>615.5</ele><time>2026-04-02T08:15:13Z</time></trkpt><trkpt lat="43.46452250641663" lon="2.355234460315448"><ele>610.0</ele><time>2026-04-02T08:15:14Z</time></trkpt><trkpt lat="43.464480168639675" lon="2.355426732914802"><ele>607.6666666666667</ele><time>2026-04-02T08:15:15Z</time></trkpt><trkpt lat="43.46440869266217" lon="2.355623467728599"><ele>605.3333333333334</ele><time>2026-04-02T08:15:16Z</time></trkpt><trkpt lat="43.46431032984837" lon="2.35582227981108"><ele>603.0</ele><time>2026-04-02T08:15:17Z</time></trkpt><trkpt lat="43.46422240035086" lon="2.356021030489809"><ele>603.0</ele><time>2026-04-02T08:15:18Z</time></trkpt><trkpt lat="43.4641560331005" lon="2.356245658291054"><ele>603.0</ele><time>2026-04-02T08:15:19Z</time></trkpt><trkpt lat="43.464114482995264" lon="2.356493959982781"><ele>603.0</ele><time>2026-04-02T08:15:20Z</time></trkpt><trkpt lat="43.46409816233893" lon="2.356753723963661"><ele>602.6666666666666</ele><time>2026-04-02T08:15:21Z</time></trkpt><trkpt lat="43.46408021258309" lon="2.3570263629219954"><ele>602.3333333333333</ele><time>2026-04-02T08:15:22Z</time></trkpt><trkpt lat="43.464059810511834" lon="2.3573080944008264"><ele>602.0</ele><time>2026-04-02T08:15:23Z</time></trkpt><trkpt lat="43.46404145111409" lon="2.3575958898141764"><ele>601.6666666666666</ele><time>2026-04-02T08:15:24Z</time></trkpt><trkpt lat="43.46402361859763" lon="2.357878924118468"><ele>601.3333333333334</ele><time>2026-04-02T08:15:25Z</time></trkpt><trkpt lat="43.46400437713729" lon="2.3581499065944156"><ele>601.0</ele><time>2026-04-02T08:15:26Z</time></trkpt><trkpt lat="43.46396505227184" lon="2.3584169293143287"><ele>601.3333333333334</ele><time>2026-04-02T08:15:27Z</time></trkpt><trkpt lat="43.463901715203654" lon="2.358698274148117"><ele>601.6666666666666</ele><time>2026-04-02T08:15:28Z</time></trkpt><trkpt lat="43.46381588439001" lon="2.3589957330392832"><ele>602.0</ele><time>2026-04-02T08:15:29Z</time></trkpt><trkpt lat="43.46370220377846" lon="2.35927097422852"><ele>595.3333333333333</ele><time>2026-04-02T08:15:30Z</time></trkpt><trkpt lat="43.4635675827448" lon="2.3595200668675393"><ele>588.6666666666666</ele><time>2026-04-02T08:15:31Z</time></trkpt><trkpt lat="43.46343111125852" lon="2.3597636200689447"><ele>582.0</ele><time>2026-04-02T08:15:32Z</time></trkpt><trkpt lat="43.463281977274804" lon="2.359975767800839"><ele>582.0</ele><time>2026-04-02T08:15:33Z</time></trkpt><trkpt lat="43.46312830020177" lon="2.360164053323883"><ele>582.0</ele><time>2026-04-02T08:15:34Z</time></trkpt><trkpt lat="43.46298844515719" lon="2.3603535019240107"><ele>582.0</ele><time>2026-04-02T08:15:35Z</time></trkpt><trkpt lat="43.46288000328598" lon="2.360563304205979"><ele>575.0</ele><time>2026-04-02T08:15:36Z</time></trkpt><trkpt lat="43.46280734464123" lon="2.3607826439085717"><ele>568.0</ele><time>2026-04-02T08:15:37Z</time></trkpt><trkpt lat="43.462757400337736" lon="2.361033017682188"><ele>561.0</ele><time>2026-04-02T08:15:38Z</time></trkpt><trkpt lat="43.46272838723188" lon="2.361304924473576"><ele>560.0</ele><time>2026-04-02T08:15:39Z</time></trkpt><trkpt lat="43.46272288896213" lon="2.3615758268645948"><ele>559.0</ele><time>2026-04-02T08:15:40Z</time></trkpt><trkpt lat="43.46275220548566" lon="2.361831714951489"><ele>558.0</ele><time>2026-04-02T08:15:41Z</time></trkpt><trkpt lat="43.46282992608337" lon="2.3620599976263326"><ele>555.6666666666666</ele><time>2026-04-02T08:15:42Z</time></trkpt><trkpt lat="43.46294360417851" lon="2.362265151879228"><ele>553.3333333333333</ele><time>2026-04-02T08:15:43Z</time></trkpt><trkpt lat="43.46308826517072" lon="2.3624299794524224"><ele>551.0</ele><time>2026-04-02T08:15:44Z</time></trkpt><trkpt lat="43.463255510748844" lon="2.3625493922887295"><ele>556.0</ele><time>2026-04-02T08:15:45Z</time></trkpt><trkpt lat="43.46343841207026" lon="2.362608132670566"><ele>561.0</ele><time>2026-04-02T08:15:46Z</time></trkpt><trkpt lat="43.46362821732714" lon="2.3626043289631506"><ele>566.0</ele><time>2026-04-02T08:15:47Z</time></trkpt><trkpt lat="43.46381722322127" lon="2.3626169060935602"><ele>567.6666666666666</ele><time>2026-04-02T08:15:48Z</time></trkpt><trkpt lat="43.46397862856577" lon="2.3627059189470034"><ele>569.3333333333334</ele><time>2026-04-02T08:15:49Z</time></trkpt><trkpt lat="43.46411480814663" lon="2.3628590142197483"><ele>571.0</ele><time>2026-04-02T08:15:50Z</time></trkpt><trkpt lat="43.46422130533567" lon="2.363043449449317"><ele>565.0</ele><time>2026-04-02T08:15:51Z</time></trkpt><trkpt lat="43.46430652180219" lon="2.3632363594744614"><ele>559.0</ele><time>2026-04-02T08:15:52Z</time></trkpt><trkpt lat="43.46443118703601" lon="2.363379450156627"><ele>553.0</ele><time>2026-04-02T08:15:53Z</time></trkpt><trkpt lat="43.464566232862246" lon="2.3635003929394216"><ele>555.3333333333334</ele><time>2026-04-02T08:15:54Z</time></trkpt><trkpt lat="43.464734440712725" lon="2.363591951693987"><ele>557.6666666666666</ele><time>2026-04-02T08:15:55Z</time></trkpt><trkpt lat="43.46492257546836" lon="2.3636242982057394"><ele>560.0</ele><time>2026-04-02T08:15:56Z</time></trkpt><trkpt lat="43.46511525266365" lon="2.363675132294967"><ele>560.0</ele><time>2026-04-02T08:15:57Z</time></trkpt><trkpt lat="43.46531178999843" lon="2.363733151979806"><ele>560.0</ele><time>2026-04-02T08:15:58Z</time></trkpt><trkpt lat="43.46549895244504" lon="2.363859197299344"><ele>560.0</ele><time>2026-04-02T08:15:59Z</time></trkpt><trkpt lat="43.46568449327532" lon="2.3639960285450945"><ele>555.6666666666666</ele><time>2026-04-02T08:16:00Z</time></trkpt><trkpt lat="43.46587170054265" lon="2.3641298354301967"><ele>551.3333333333334</ele><time>2026-04-02T08:16:01Z</time></trkpt><trkpt lat="43.46605620999412" lon="2.3642632314288443"><ele>547.0</ele><time>2026-04-02T08:16:02Z</time></trkpt><trkpt lat="43.466239555576" lon="2.364396451070775"><ele>550.0</ele><time>2026-04-02T08:16:03Z</time></trkpt><trkpt lat="43.466420649907626" lon="2.3645287094920704"><ele>553.0</ele><time>2026-04-02T08:16:04Z</time></trkpt><trkpt lat="43.46659406128985" lon="2.364648006666037"><ele>556.0</ele><time>2026-04-02T08:16:05Z</time></trkpt><trkpt lat="43.4667685264256" lon="2.3647497422768358"><ele>546.6666666666667</ele><time>2026-04-02T08:16:06Z</time></trkpt><trkpt lat="43.46694320760756" lon="2.3647932552351896"><ele>537.3333333333334</ele><time>2026-04-02T08:16:07Z</time></trkpt><trkpt lat="43.46711705340439" lon="2.364769669285306"><ele>528.0</ele><time>2026-04-02T08:16:08Z</time></trkpt><trkpt lat="43.46728829450392" lon="2.3646986846019877"><ele>533.3333333333334</ele><time>2026-04-02T08:16:09Z</time></trkpt><trkpt lat="43.46745980441083" lon="2.364587725272734"><ele>538.6666666666667</ele><time>2026-04-02T08:16:10Z</time></trkpt><trkpt lat="43.467635493092665" lon="2.364465593692539"><ele>544.0</ele><time>2026-04-02T08:16:11Z</time></trkpt><trkpt lat="43.46780682040333" lon="2.3643578732692"><ele>541.0</ele><time>2026-04-02T08:16:12Z</time></trkpt><trkpt lat="43.4679644549663" lon="2.36422332415316"><ele>538.0</ele><time>2026-04-02T08:16:13Z</time></trkpt><trkpt lat="43.46809813227583" lon="2.364049070486154"><ele>535.0</ele><time>2026-04-02T08:16:14Z</time></trkpt><trkpt lat="43.468208172553965" lon="2.3638472220388156"><ele>535.0</ele><time>2026-04-02T08:16:15Z</time></trkpt><trkpt lat="43.46830918179605" lon="2.3636466355963788"><ele>535.0</ele><time>2026-04-02T08:16:16Z</time></trkpt><trkpt lat="43.46839732790834" lon="2.363459126785115"><ele>535.0</ele><time>2026-04-02T08:16:17Z</time></trkpt><trkpt lat="43.46846389827033" lon="2.363291408689889"><ele>535.0</ele><time>2026-04-02T08:16:18Z</time></trkpt><trkpt lat="43.468530364667146" lon="2.3631540147283854"><ele>535.0</ele><time>2026-04-02T08:16:19Z</time></trkpt><trkpt lat="43.46863186158853" lon="2.36308970865965"><ele>535.0</ele><time>2026-04-02T08:16:20Z</time></trkpt><trkpt lat="43.468744285640575" lon="2.363111807106216"><ele>535.0</ele><time>2026-04-02T08:16:21Z</time></trkpt><trkpt lat="43.46883161996398" lon="2.3632108967400742"><ele>535.25</ele><time>2026-04-02T08:16:22Z</time></trkpt><trkpt lat="43.46887252262872" lon="2.363367022246707"><ele>535.5</ele><time>2026-04-02T08:16:23Z</time></trkpt><trkpt lat="43.468853635488415" lon="2.363548322048045"><ele>535.75</ele><time>2026-04-02T08:16:24Z</time></trkpt><trkpt lat="43.468827021388584" lon="2.3637592789275415"><ele>536.0</ele><time>2026-04-02T08:16:25Z</time></trkpt><trkpt lat="43.46881436076875" lon="2.3639847278337576"><ele>536.0</ele><time>2026-04-02T08:16:26Z</time></trkpt><trkpt lat="43.468811847916875" lon="2.3642055894744627"><ele>536.0</ele><time>2026-04-02T08:16:27Z</time></trkpt><trkpt lat="43.46879286609558" lon="2.364438158880477"><ele>536.0</ele><time>2026-04-02T08:16:28Z</time></trkpt><trkpt lat="43.46874743997096" lon="2.3646686100556864"><ele>526.3333333333333</ele><time>2026-04-02T08:16:29Z</time></trkpt><trkpt lat="43.468674648682416" lon="2.364882992950336"><ele>516.6666666666666</ele><time>2026-04-02T08:16:30Z</time></trkpt><trkpt lat="43.46859280723618" lon="2.365114611187828"><ele>507.0</ele><time>2026-04-02T08:16:31Z</time></trkpt><trkpt lat="43.46851278971414" lon="2.3653431074973073"><ele>505.0</ele><time>2026-04-02T08:16:32Z</time></trkpt><trkpt lat="43.468456423901706" lon="2.365562359098805"><ele>503.0</ele><time>2026-04-02T08:16:33Z</time></trkpt><trkpt lat="43.46839269480367" lon="2.365747493481175"><ele>501.0</ele><time>2026-04-02T08:16:34Z</time></trkpt><trkpt lat="43.46836890685725" lon="2.36594614981006"><ele>501.0</ele><time>2026-04-02T08:16:35Z</time></trkpt><trkpt lat="43.46841559896206" lon="2.3661355431663025"><ele>501.0</ele><time>2026-04-02T08:16:36Z</time></trkpt><trkpt lat="43.46851733947503" lon="2.3662741022451512"><ele>501.0</ele><time>2026-04-02T08:16:37Z</time></trkpt><trkpt lat="43.468662596840225" lon="2.366325160866953"><ele>501.0</ele><time>2026-04-02T08:16:38Z</time></trkpt><trkpt lat="43.468825786393765" lon="2.3663843433648255"><ele>500.66666666666663</ele><time>2026-04-02T08:16:39Z</time></trkpt><trkpt lat="43.468999494252685" lon="2.36647918577715"><ele>500.3333333333333</ele><time>2026-04-02T08:16:40Z</time></trkpt><trkpt lat="43.46915937677965" lon="2.366649538098668"><ele>500.0</ele><time>2026-04-02T08:16:41Z</time></trkpt><trkpt lat="43.46933002159422" lon="2.366782839742985"><ele>500.0</ele><time>2026-04-02T08:16:42Z</time></trkpt><trkpt lat="43.46950328712289" lon="2.3669116809871666"><ele>500.0</ele><time>2026-04-02T08:16:43Z</time></trkpt><trkpt lat="43.46963932088242" lon="2.367117154418742"><ele>500.0</ele><time>2026-04-02T08:16:44Z</time></trkpt><trkpt lat="43.4697411237302" lon="2.367349896673275"><ele>498.66666666666663</ele><time>2026-04-02T08:16:45Z</time></trkpt><trkpt lat="43.46984462087182" lon="2.367579659027675"><ele>497.33333333333337</ele><time>2026-04-02T08:16:46Z</time></trkpt><trkpt lat="43.469948122029194" lon="2.3677839717719076"><ele>496.0</ele><time>2026-04-02T08:16:47Z</time></trkpt><trkpt lat="43.47005779252198" lon="2.3679570913595365"><ele>487.0</ele><time>2026-04-02T08:16:48Z</time></trkpt><trkpt lat="43.47019005558936" lon="2.3680624298915065"><ele>478.0</ele><time>2026-04-02T08:16:49Z</time></trkpt><trkpt lat="43.470350013615835" lon="2.3680881688013122"><ele>469.0</ele><time>2026-04-02T08:16:50Z</time></trkpt><trkpt lat="43.47052774133078" lon="2.3680833345137775"><ele>469.0</ele><time>2026-04-02T08:16:51Z</time></trkpt><trkpt lat="43.470707160023096" lon="2.3680999798617957"><ele>469.0</ele><time>2026-04-02T08:16:52Z</time></trkpt><trkpt lat="43.470885933779215" lon="2.3681218271078097"><ele>469.0</ele><time>2026-04-02T08:16:53Z</time></trkpt><trkpt lat="43.47104253681932" lon="2.3681600572190744"><ele>469.0</ele><time>2026-04-02T08:16:54Z</time></trkpt><trkpt lat="43.4711931605613" lon="2.3681865472036723"><ele>469.0</ele><time>2026-04-02T08:16:55Z</time></trkpt><trkpt lat="43.47133879498358" lon="2.368199616623652"><ele>469.0</ele><time>2026-04-02T08:16:56Z</time></trkpt><trkpt lat="43.471488811351215" lon="2.368188455699251"><ele>469.0</ele><time>2026-04-02T08:16:57Z</time></trkpt><trkpt lat="43.47164691527069" lon="2.3681272440414385"><ele>482.0</ele><time>2026-04-02T08:16:58Z</time></trkpt><trkpt lat="43.471783225587686" lon="2.367986054082087"><ele>495.0</ele><time>2026-04-02T08:16:59Z</time></trkpt><trkpt lat="43.47189061688477" lon="2.367820660279616"><ele>508.0</ele><time>2026-04-02T08:17:00Z</time></trkpt><trkpt lat="43.472009557577096" lon="2.3677121970475725"><ele>507.25</ele><time>2026-04-02T08:17:01Z</time></trkpt><trkpt lat="43.472146138194475" lon="2.367691187243057"><ele>506.5</ele><time>2026-04-02T08:17:02Z</time></trkpt><trkpt lat="43.47228507824487" lon="2.367769294172736"><ele>505.75</ele><time>2026-04-02T08:17:03Z</time></trkpt><trkpt lat="43.47243327387011" lon="2.3678555919905695"><ele>505.0</ele><time>2026-04-02T08:17:04Z</time></trkpt><trkpt lat="43.47258174102017" lon="2.367946334791371"><ele>499.0</ele><time>2026-04-02T08:17:05Z</time></trkpt><trkpt lat="43.47272497952008" lon="2.3680471864075727"><ele>493.0</ele><time>2026-04-02T08:17:06Z</time></trkpt><trkpt lat="43.47287452446116" lon="2.3681786054641347"><ele>487.0</ele><time>2026-04-02T08:17:07Z</time></trkpt><trkpt lat="43.47302596398272" lon="2.3683721287567163"><ele>487.0</ele><time>2026-04-02T08:17:08Z</time></trkpt><trkpt lat="43.47317032067719" lon="2.3686123632584763"><ele>487.0</ele><time>2026-04-02T08:17:09Z</time></trkpt><trkpt lat="43.47331802329531" lon="2.3688943015196284"><ele>471.5</ele><time>2026-04-02T08:17:10Z</time></trkpt><trkpt lat="43.47347262659112" lon="2.369192428175131"><ele>456.0</ele><time>2026-04-02T08:17:11Z</time></trkpt><trkpt lat="43.473621611913664" lon="2.369479786078051"><ele>458.0</ele><time>2026-04-02T08:17:12Z</time></trkpt><trkpt lat="43.47375614876897" lon="2.369743907023655"><ele>460.0</ele><time>2026-04-02T08:17:13Z</time></trkpt><trkpt lat="43.47386748188452" lon="2.3699823780489924"><ele>462.0</ele><time>2026-04-02T08:17:14Z</time></trkpt><trkpt lat="43.47398468913135" lon="2.3701705489920406"><ele>462.0</ele><time>2026-04-02T08:17:15Z</time></trkpt><trkpt lat="43.47413235253896" lon="2.3703123548390543"><ele>462.0</ele><time>2026-04-02T08:17:16Z</time></trkpt><trkpt lat="43.47430960178996" lon="2.3703825302676713"><ele>462.0</ele><time>2026-04-02T08:17:17Z</time></trkpt><trkpt lat="43.47449862157448" lon="2.3703746402522445"><ele>463.0</ele><time>2026-04-02T08:17:18Z</time></trkpt><trkpt lat="43.474706559388316" lon="2.370300930705658"><ele>464.0</ele><time>2026-04-02T08:17:19Z</time></trkpt><trkpt lat="43.47492583568643" lon="2.3701809823063567"><ele>464.0</ele><time>2026-04-02T08:17:20Z</time></trkpt><trkpt lat="43.47514980823075" lon="2.370032910271845"><ele>464.0</ele><time>2026-04-02T08:17:21Z</time></trkpt><trkpt lat="43.47536336913028" lon="2.3698641791673043"><ele>471.0</ele><time>2026-04-02T08:17:22Z</time></trkpt><trkpt lat="43.47558253999241" lon="2.3697079049124494"><ele>478.0</ele><time>2026-04-02T08:17:23Z</time></trkpt><trkpt lat="43.47582364334455" lon="2.3696068664578385"><ele>478.0</ele><time>2026-04-02T08:17:24Z</time></trkpt><trkpt lat="43.47606906243205" lon="2.369588352319139"><ele>478.0</ele><time>2026-04-02T08:17:25Z</time></trkpt><trkpt lat="43.476303382030515" lon="2.3695483887384814"><ele>471.33333333333337</ele><time>2026-04-02T08:17:26Z</time></trkpt><trkpt lat="43.47651547643086" lon="2.3694679177044606"><ele>464.66666666666663</ele><time>2026-04-02T08:17:27Z</time></trkpt><trkpt lat="43.476706236051925" lon="2.369364795711134"><ele>458.0</ele><time>2026-04-02T08:17:28Z</time></trkpt><trkpt lat="43.47687760408646" lon="2.369309119320366"><ele>458.0</ele><time>2026-04-02T08:17:29Z</time></trkpt><trkpt lat="43.47703858864953" lon="2.3693433295359276"><ele>458.0</ele><time>2026-04-02T08:17:30Z</time></trkpt><trkpt lat="43.47718918020042" lon="2.3694498426665187"><ele>458.0</ele><time>2026-04-02T08:17:31Z</time></trkpt><trkpt lat="43.477329463185576" lon="2.369595872366061"><ele>454.66666666666663</ele><time>2026-04-02T08:17:32Z</time></trkpt><trkpt lat="43.477455211533844" lon="2.3696630175402116"><ele>451.33333333333337</ele><time>2026-04-02T08:17:33Z</time></trkpt><trkpt lat="43.47760501546053" lon="2.3696782723127385"><ele>448.0</ele><time>2026-04-02T08:17:34Z</time></trkpt><trkpt lat="43.47778068700217" lon="2.369599835912459"><ele>444.33333333333337</ele><time>2026-04-02T08:17:35Z</time></trkpt><trkpt lat="43.477967791060536" lon="2.369479767329565"><ele>440.66666666666663</ele><time>2026-04-02T08:17:36Z</time></trkpt><trkpt lat="43.47815617199916" lon="2.3693689309107575"><ele>437.0</ele><time>2026-04-02T08:17:37Z</time></trkpt><trkpt lat="43.47832658440585" lon="2.3692477830272933"><ele>437.0</ele><time>2026-04-02T08:17:38Z</time></trkpt><trkpt lat="43.478489337610604" lon="2.369097778025241"><ele>437.0</ele><time>2026-04-02T08:17:39Z</time></trkpt><trkpt lat="43.47866881559271" lon="2.369027955842595"><ele>437.0</ele><time>2026-04-02T08:17:40Z</time></trkpt><trkpt lat="43.478833265946164" lon="2.3689905067334327"><ele>438.0</ele><time>2026-04-02T08:17:41Z</time></trkpt><trkpt lat="43.47896648717889" lon="2.3690279803950487"><ele>439.0</ele><time>2026-04-02T08:17:42Z</time></trkpt><trkpt lat="43.47905336440385" lon="2.3691750563816485"><ele>440.0</ele><time>2026-04-02T08:17:43Z</time></trkpt><trkpt lat="43.47912993481493" lon="2.3693797116581905"><ele>441.0</ele><time>2026-04-02T08:17:44Z</time></trkpt><trkpt lat="43.47922259339819" lon="2.369635069303862"><ele>442.66666666666663</ele><time>2026-04-02T08:17:45Z</time></trkpt><trkpt lat="43.479302484817424" lon="2.3699004859577606"><ele>444.3333333333333</ele><time>2026-04-02T08:17:46Z</time></trkpt><trkpt lat="43.47943651326032" lon="2.3701198753955"><ele>446.0</ele><time>2026-04-02T08:17:47Z</time></trkpt><trkpt lat="43.479623772160345" lon="2.3702977044299973"><ele>446.0</ele><time>2026-04-02T08:17:48Z</time></trkpt><trkpt lat="43.47983227623061" lon="2.37046974014476"><ele>446.0</ele><time>2026-04-02T08:17:49Z</time></trkpt><trkpt lat="43.47999316619073" lon="2.3706589997371452"><ele>434.66666666666663</ele><time>2026-04-02T08:17:50Z</time></trkpt><trkpt lat="43.48010977035215" lon="2.3708447119150864"><ele>423.33333333333337</ele><time>2026-04-02T08:17:51Z</time></trkpt><trkpt lat="43.48022462749331" lon="2.3709846432099067"><ele>412.0</ele><time>2026-04-02T08:17:52Z</time></trkpt><trkpt lat="43.48040670315878" lon="2.371064870644236"><ele>417.6666666666667</ele><time>2026-04-02T08:17:53Z</time></trkpt><trkpt lat="43.48062459198225" lon="2.3711068985909454"><ele>423.33333333333337</ele><time>2026-04-02T08:17:54Z</time></trkpt><trkpt lat="43.480834828461646" lon="2.371181464060795"><ele>429.0</ele><time>2026-04-02T08:17:55Z</time></trkpt><trkpt lat="43.48101339542283" lon="2.3713040849218308"><ele>419.75</ele><time>2026-04-02T08:17:56Z</time></trkpt><trkpt lat="43.481156473212565" lon="2.371431696149978"><ele>410.5</ele><time>2026-04-02T08:17:57Z</time></trkpt><trkpt lat="43.48126812835479" lon="2.371553339836142"><ele>401.25</ele><time>2026-04-02T08:17:58Z</time></trkpt><trkpt lat="43.48136386305136" lon="2.3716608775828756"><ele>392.0</ele><time>2026-04-02T08:17:59Z</time></trkpt><trkpt lat="43.481480996110996" lon="2.3716927694628263"><ele>392.0</ele><time>2026-04-02T08:18:00Z</time></trkpt><trkpt lat="43.481594543376204" lon="2.3716410329805995"><ele>392.0</ele><time>2026-04-02T08:18:01Z</time></trkpt><trkpt lat="43.481671168430374" lon="2.37153028301269"><ele>392.0</ele><time>2026-04-02T08:18:02Z</time></trkpt><trkpt lat="43.48171923536649" lon="2.3713745363610017"><ele>392.0</ele><time>2026-04-02T08:18:03Z</time></trkpt><trkpt lat="43.48175384523988" lon="2.371177142973092"><ele>400.0</ele><time>2026-04-02T08:18:04Z</time></trkpt><trkpt lat="43.48180801930386" lon="2.370952557226235"><ele>408.0</ele><time>2026-04-02T08:18:05Z</time></trkpt><trkpt lat="43.48191689641403" lon="2.3707440232479837"><ele>416.0</ele><time>2026-04-02T08:18:06Z</time></trkpt><trkpt lat="43.482013628257334" lon="2.3705620504943727"><ele>414.5</ele><time>2026-04-02T08:18:07Z</time></trkpt><trkpt lat="43.48212942000332" lon="2.370491533556569"><ele>413.0</ele><time>2026-04-02T08:18:08Z</time></trkpt><trkpt lat="43.482252674816294" lon="2.3705000246620918"><ele>411.5</ele><time>2026-04-02T08:18:09Z</time></trkpt><trkpt lat="43.48242813419848" lon="2.3704755596934257"><ele>410.0</ele><time>2026-04-02T08:18:10Z</time></trkpt><trkpt lat="43.48261554990351" lon="2.3704171917533534"><ele>410.0</ele><time>2026-04-02T08:18:11Z</time></trkpt><trkpt lat="43.48280562437794" lon="2.3703065693397827"><ele>410.0</ele><time>2026-04-02T08:18:12Z</time></trkpt><trkpt lat="43.48294852037856" lon="2.370149716486184"><ele>410.0</ele><time>2026-04-02T08:18:13Z</time></trkpt><trkpt lat="43.48303760438729" lon="2.3699662796447982"><ele>400.66666666666663</ele><time>2026-04-02T08:18:14Z</time></trkpt><trkpt lat="43.48306268496572" lon="2.369766425641798"><ele>391.3333333333333</ele><time>2026-04-02T08:18:15Z</time></trkpt><trkpt lat="43.48304433027884" lon="2.3695335046545525"><ele>382.0</ele><time>2026-04-02T08:18:16Z</time></trkpt><trkpt lat="43.48300458663886" lon="2.369292540953377"><ele>382.0</ele><time>2026-04-02T08:18:17Z</time></trkpt><trkpt lat="43.48301122938972" lon="2.369084996110181"><ele>382.0</ele><time>2026-04-02T08:18:18Z</time></trkpt><trkpt lat="43.48306686862755" lon="2.3689269978538987"><ele>382.0</ele><time>2026-04-02T08:18:19Z</time></trkpt><trkpt lat="43.483165443597436" lon="2.3688202541150822"><ele>382.0</ele><time>2026-04-02T08:18:20Z</time></trkpt><trkpt lat="43.483289165523495" lon="2.368805945368667"><ele>382.0</ele><time>2026-04-02T08:18:21Z</time></trkpt><trkpt lat="43.483405489435846" lon="2.368872884294824"><ele>382.0</ele><time>2026-04-02T08:18:22Z</time></trkpt><trkpt lat="43.48354192334633" lon="2.368949425498795"><ele>382.0</ele><time>2026-04-02T08:18:23Z</time></trkpt><trkpt lat="43.48370258692609" lon="2.369004484834796"><ele>382.0</ele><time>2026-04-02T08:18:24Z</time></trkpt><trkpt lat="43.483895950636224" lon="2.369043710167539"><ele>380.0</ele><time>2026-04-02T08:18:25Z</time></trkpt><trkpt lat="43.48410803723307" lon="2.3690502661810138"><ele>378.0</ele><time>2026-04-02T08:18:26Z</time></trkpt><trkpt lat="43.48431516330599" lon="2.3690706391177194"><ele>376.0</ele><time>2026-04-02T08:18:27Z</time></trkpt><trkpt lat="43.484488440438504" lon="2.369159256490036"><ele>377.66666666666663</ele><time>2026-04-02T08:18:28Z</time></trkpt><trkpt lat="43.48463394354134" lon="2.3692749843676952"><ele>379.3333333333333</ele><time>2026-04-02T08:18:29Z</time></trkpt><trkpt lat="43.484746415953154" lon="2.3694430409930245"><ele>381.0</ele><time>2026-04-02T08:18:30Z</time></trkpt><trkpt lat="43.4848600423561" lon="2.369586833733648"><ele>381.0</ele><time>2026-04-02T08:18:31Z</time></trkpt><trkpt lat="43.48494890005068" lon="2.3697166724167964"><ele>381.0</ele><time>2026-04-02T08:18:32Z</time></trkpt><trkpt lat="43.48506310674623" lon="2.36976129955531"><ele>381.0</ele><time>2026-04-02T08:18:33Z</time></trkpt><trkpt lat="43.48519211620064" lon="2.3697219622971146"><ele>381.0</ele><time>2026-04-02T08:18:34Z</time></trkpt><trkpt lat="43.48532130739475" lon="2.36964025651375"><ele>376.3333333333333</ele><time>2026-04-02T08:18:35Z</time></trkpt><trkpt lat="43.48545103038514" lon="2.369536005960926"><ele>371.66666666666663</ele><time>2026-04-02T08:18:36Z</time></trkpt><trkpt lat="43.48559728698371" lon="2.3694432498585845"><ele>367.0</ele><time>2026-04-02T08:18:37Z</time></trkpt><trkpt lat="43.485736441626315" lon="2.369327973822645"><ele>367.0</ele><time>2026-04-02T08:18:38Z</time></trkpt><trkpt lat="43.48585221951014" lon="2.3691797921024165"><ele>367.0</ele><time>2026-04-02T08:18:39Z</time></trkpt><trkpt lat="43.48594052026588" lon="2.3689873108088038"><ele>367.0</ele><time>2026-04-02T08:18:40Z</time></trkpt><trkpt lat="43.48600888857716" lon="2.3688050513134433"><ele>363.25</ele><time>2026-04-02T08:18:41Z</time></trkpt><trkpt lat="43.48610002222761" lon="2.3687140473096737"><ele>359.5</ele><time>2026-04-02T08:18:42Z</time></trkpt><trkpt lat="43.4861944221492" lon="2.3686914972555693"><ele>355.75</ele><time>2026-04-02T08:18:43Z</time></trkpt><trkpt lat="43.486321932663806" lon="2.3686956425400716"><ele>352.0</ele><time>2026-04-02T08:18:44Z</time></trkpt><trkpt lat="43.48646483175303" lon="2.3686261669757904"><ele>352.0</ele><time>2026-04-02T08:18:45Z</time></trkpt><trkpt lat="43.486593608687755" lon="2.3684997288917744"><ele>352.0</ele><time>2026-04-02T08:18:46Z</time></trkpt><trkpt lat="43.4866919539371" lon="2.3683137421852227"><ele>352.0</ele><time>2026-04-02T08:18:47Z</time></trkpt><trkpt lat="43.486764621458555" lon="2.3680995436934418"><ele>350.75</ele><time>2026-04-02T08:18:48Z</time></trkpt><trkpt lat="43.48685549181349" lon="2.367943376071015"><ele>349.5</ele><time>2026-04-02T08:18:49Z</time></trkpt><trkpt lat="43.48698832147139" lon="2.3678928071107674"><ele>348.25</ele><time>2026-04-02T08:18:50Z</time></trkpt><trkpt lat="43.48711647338404" lon="2.367786613432958"><ele>347.0</ele><time>2026-04-02T08:18:51Z</time></trkpt><trkpt lat="43.48722852438463" lon="2.3676359759558445"><ele>347.0</ele><time>2026-04-02T08:18:52Z</time></trkpt><trkpt lat="43.48733824717977" lon="2.3674535393231912"><ele>347.0</ele><time>2026-04-02T08:18:53Z</time></trkpt><trkpt lat="43.4874688453092" lon="2.36735567292863"><ele>347.0</ele><time>2026-04-02T08:18:54Z</time></trkpt><trkpt lat="43.48760923202033" lon="2.3672751857724577"><ele>341.33333333333337</ele><time>2026-04-02T08:18:55Z</time></trkpt><trkpt lat="43.487750833354305" lon="2.367153082007113"><ele>335.6666666666667</ele><time>2026-04-02T08:18:56Z</time></trkpt><trkpt lat="43.48790383863115" lon="2.3670346352366622"><ele>330.0</ele><time>2026-04-02T08:18:57Z</time></trkpt><trkpt lat="43.48804262552009" lon="2.3669166846426073"><ele>330.0</ele><time>2026-04-02T08:18:58Z</time></trkpt><trkpt lat="43.48816639818309" lon="2.366771773625446"><ele>330.0</ele><time>2026-04-02T08:18:59Z</time></trkpt><trkpt lat="43.488277182585286" lon="2.3665551368419164"><ele>330.0</ele><time>2026-04-02T08:19:00Z</time></trkpt><trkpt lat="43.488384953591456" lon="2.3662963394143928"><ele>336.0</ele><time>2026-04-02T08:19:01Z</time></trkpt><trkpt lat="43.488501579749446" lon="2.366034798465223"><ele>342.0</ele><time>2026-04-02T08:19:02Z</time></trkpt><trkpt lat="43.488615194760825" lon="2.365794670148157"><ele>348.0</ele><time>2026-04-02T08:19:03Z</time></trkpt><trkpt lat="43.48872886093701" lon="2.365580333766041"><ele>340.0</ele><time>2026-04-02T08:19:04Z</time></trkpt><trkpt lat="43.4888469153312" lon="2.3653812894724466"><ele>332.0</ele><time>2026-04-02T08:19:05Z</time></trkpt><trkpt lat="43.488961558845034" lon="2.3651845996789067"><ele>324.0</ele><time>2026-04-02T08:19:06Z</time></trkpt><trkpt lat="43.48906629748393" lon="2.364989483900013"><ele>324.0</ele><time>2026-04-02T08:19:07Z</time></trkpt><trkpt lat="43.48916800825869" lon="2.3648008770838427"><ele>324.0</ele><time>2026-04-02T08:19:08Z</time></trkpt><trkpt lat="43.489269742553" lon="2.364614475496049"><ele>324.0</ele><time>2026-04-02T08:19:09Z</time></trkpt><trkpt lat="43.489367183454696" lon="2.3644322593971934"><ele>325.3333333333333</ele><time>2026-04-02T08:19:10Z</time></trkpt><trkpt lat="43.48947750259028" lon="2.3642734743305684"><ele>326.66666666666663</ele><time>2026-04-02T08:19:11Z</time></trkpt><trkpt lat="43.489565316817156" lon="2.3640967003604927"><ele>328.0</ele><time>2026-04-02T08:19:12Z</time></trkpt><trkpt lat="43.489660293096" lon="2.3639390465904184"><ele>324.0</ele><time>2026-04-02T08:19:13Z</time></trkpt><trkpt lat="43.489742050252914" lon="2.3637765777495003"><ele>320.0</ele><time>2026-04-02T08:19:14Z</time></trkpt><trkpt lat="43.48980094898636" lon="2.363609552655116"><ele>316.0</ele><time>2026-04-02T08:19:15Z</time></trkpt><trkpt lat="43.48983855786753" lon="2.363443505118197"><ele>312.0</ele><time>2026-04-02T08:19:16Z</time></trkpt><trkpt lat="43.489891066137815" lon="2.363325441124561"><ele>312.0</ele><time>2026-04-02T08:19:17Z</time></trkpt><trkpt lat="43.48994382645179" lon="2.3632467469606917"><ele>312.0</ele><time>2026-04-02T08:19:18Z</time></trkpt><trkpt lat="43.49001629860944" lon="2.3632191755056637"><ele>312.0</ele><time>2026-04-02T08:19:19Z</time></trkpt><trkpt lat="43.490112626373936" lon="2.3633010540926755"><ele>312.0</ele><time>2026-04-02T08:19:20Z</time></trkpt><trkpt lat="43.49018478753448" lon="2.363423866559557"><ele>312.0</ele><time>2026-04-02T08:19:21Z</time></trkpt><trkpt lat="43.49023891049537" lon="2.3636120676964794"><ele>312.0</ele><time>2026-04-02T08:19:22Z</time></trkpt><trkpt lat="43.49025519927442" lon="2.3638549242148574"><ele>312.0</ele><time>2026-04-02T08:19:23Z</time></trkpt><trkpt lat="43.49023885818736" lon="2.364092016313082"><ele>312.0</ele><time>2026-04-02T08:19:24Z</time></trkpt><trkpt lat="43.490224030566964" lon="2.364307710162435"><ele>311.75</ele><time>2026-04-02T08:19:25Z</time></trkpt><trkpt lat="43.49022870003117" lon="2.3645190204087116"><ele>311.5</ele><time>2026-04-02T08:19:26Z</time></trkpt><trkpt lat="43.49022956437049" lon="2.3647152824009394"><ele>311.25</ele><time>2026-04-02T08:19:27Z</time></trkpt><trkpt lat="43.49023412893884" lon="2.3648884890299473"><ele>311.0</ele><time>2026-04-02T08:19:28Z</time></trkpt><trkpt lat="43.49024290635826" lon="2.365049671952763"><ele>310.0</ele><time>2026-04-02T08:19:29Z</time></trkpt><trkpt lat="43.49024527772822" lon="2.365230972343754"><ele>309.0</ele><time>2026-04-02T08:19:30Z</time></trkpt><trkpt lat="43.49024306323941" lon="2.3653832286285836"><ele>308.0</ele><time>2026-04-02T08:19:31Z</time></trkpt><trkpt lat="43.49022767215326" lon="2.3655324398508606"><ele>307.0</ele><time>2026-04-02T08:19:32Z</time></trkpt><trkpt lat="43.49019806055339" lon="2.3656754743907533"><ele>305.75</ele><time>2026-04-02T08:19:33Z</time></trkpt><trkpt lat="43.49015300445426" lon="2.3658149643490423"><ele>304.5</ele><time>2026-04-02T08:19:34Z</time></trkpt><trkpt lat="43.49009165416097" lon="2.3659897404487724"><ele>303.25</ele><time>2026-04-02T08:19:35Z</time></trkpt><trkpt lat="43.49001156392484" lon="2.3661823801999384"><ele>302.0</ele><time>2026-04-02T08:19:36Z</time></trkpt><trkpt lat="43.48993096965404" lon="2.3663505108731027"><ele>303.0</ele><time>2026-04-02T08:19:37Z</time></trkpt><trkpt lat="43.48985101684266" lon="2.3665039952234976"><ele>304.0</ele><time>2026-04-02T08:19:38Z</time></trkpt><trkpt lat="43.48976621500788" lon="2.366656485934764"><ele>305.0</ele><time>2026-04-02T08:19:39Z</time></trkpt><trkpt lat="43.48966589866062" lon="2.3667986092330873"><ele>306.0</ele><time>2026-04-02T08:19:40Z</time></trkpt><trkpt lat="43.48954730339976" lon="2.366931868580977"><ele>306.0</ele><time>2026-04-02T08:19:41Z</time></trkpt><trkpt lat="43.48940985467228" lon="2.367049522052749"><ele>306.0</ele><time>2026-04-02T08:19:42Z</time></trkpt><trkpt lat="43.48926179905695" lon="2.36716508070257"><ele>306.0</ele><time>2026-04-02T08:19:43Z</time></trkpt><trkpt lat="43.48911241262264" lon="2.3673014738713087"><ele>307.6666666666667</ele><time>2026-04-02T08:19:44Z</time></trkpt><trkpt lat="43.48895898946811" lon="2.3674424253760438"><ele>309.33333333333337</ele><time>2026-04-02T08:19:45Z</time></trkpt><trkpt lat="43.48881247345404" lon="2.367588760583557"><ele>311.0</ele><time>2026-04-02T08:19:46Z</time></trkpt><trkpt lat="43.48866206357613" lon="2.367743481215115"><ele>311.0</ele><time>2026-04-02T08:19:47Z</time></trkpt><trkpt lat="43.48852565783808" lon="2.3678951121828784"><ele>311.0</ele><time>2026-04-02T08:19:48Z</time></trkpt><trkpt lat="43.488402829953095" lon="2.368054011606264"><ele>311.0</ele><time>2026-04-02T08:19:49Z</time></trkpt><trkpt lat="43.4882957468051" lon="2.3682158163736657"><ele>303.0</ele><time>2026-04-02T08:19:50Z</time></trkpt><trkpt lat="43.48819372038238" lon="2.3683686351120055"><ele>295.0</ele><time>2026-04-02T08:19:51Z</time></trkpt><trkpt lat="43.488085179179784" lon="2.3685162656231316"><ele>287.0</ele><time>2026-04-02T08:19:52Z</time></trkpt><trkpt lat="43.487988079068124" lon="2.3686752083185976"><ele>289.0</ele><time>2026-04-02T08:19:53Z</time></trkpt><trkpt lat="43.48789271278873" lon="2.3688441066913075"><ele>291.0</ele><time>2026-04-02T08:19:54Z</time></trkpt><trkpt lat="43.48778537047652" lon="2.3690201852587927"><ele>293.0</ele><time>2026-04-02T08:19:55Z</time></trkpt><trkpt lat="43.48768019746583" lon="2.3691998884444985"><ele>293.0</ele><time>2026-04-02T08:19:56Z</time></trkpt><trkpt lat="43.48757913441433" lon="2.3693817316879255"><ele>293.0</ele><time>2026-04-02T08:19:57Z</time></trkpt><trkpt lat="43.48747523270293" lon="2.3695569855281744"><ele>293.0</ele><time>2026-04-02T08:19:58Z</time></trkpt><trkpt lat="43.48736783869004" lon="2.3697338883624948"><ele>295.6666666666667</ele><time>2026-04-02T08:19:59Z</time></trkpt><trkpt lat="43.487266621270635" lon="2.369906881051497"><ele>298.3333333333333</ele><time>2026-04-02T08:20:00Z</time></trkpt><trkpt lat="43.48716672529345" lon="2.3700764708944693"><ele>301.0</ele><time>2026-04-02T08:20:01Z</time></trkpt><trkpt lat="43.48707394972783" lon="2.3702515762538576"><ele>301.0</ele><time>2026-04-02T08:20:02Z</time></trkpt><trkpt lat="43.486980176114976" lon="2.3704275817417213"><ele>301.0</ele><time>2026-04-02T08:20:03Z</time></trkpt><trkpt lat="43.48688556386989" lon="2.3706015019745768"><ele>301.0</ele><time>2026-04-02T08:20:04Z</time></trkpt><trkpt lat="43.48677968661062" lon="2.370765163379698"><ele>295.0</ele><time>2026-04-02T08:20:05Z</time></trkpt><trkpt lat="43.486685255161674" lon="2.3709371574201135"><ele>289.0</ele><time>2026-04-02T08:20:06Z</time></trkpt><trkpt lat="43.48659253620602" lon="2.3711073403449716"><ele>283.0</ele><time>2026-04-02T08:20:07Z</time></trkpt><trkpt lat="43.48650329585296" lon="2.371283501499157"><ele>280.75</ele><time>2026-04-02T08:20:08Z</time></trkpt><trkpt lat="43.48642787814665" lon="2.3714604918028788"><ele>278.5</ele><time>2026-04-02T08:20:09Z</time></trkpt><trkpt lat="43.48636612082151" lon="2.3716442745620987"><ele>276.25</ele><time>2026-04-02T08:20:10Z</time></trkpt><trkpt lat="43.486328152019645" lon="2.371832372481138"><ele>274.0</ele><time>2026-04-02T08:20:11Z</time></trkpt><trkpt lat="43.48631649583565" lon="2.3720069122986978"><ele>274.0</ele><time>2026-04-02T08:20:12Z</time></trkpt><trkpt lat="43.4863201880578" lon="2.3721706220415073"><ele>274.0</ele><time>2026-04-02T08:20:13Z</time></trkpt><trkpt lat="43.48633976769949" lon="2.3723147972490053"><ele>274.0</ele><time>2026-04-02T08:20:14Z</time></trkpt><trkpt lat="43.48635702436747" lon="2.3724250593147342"><ele>274.0</ele><time>2026-04-02T08:20:15Z</time></trkpt><trkpt lat="43.486373642715584" lon="2.37253565558364"><ele>274.0</ele><time>2026-04-02T08:20:16Z</time></trkpt><trkpt lat="43.486402183025405" lon="2.372630116779296"><ele>273.0</ele><time>2026-04-02T08:20:17Z</time></trkpt><trkpt lat="43.48643016241909" lon="2.372769485553637"><ele>272.0</ele><time>2026-04-02T08:20:19Z</time></trkpt><trkpt lat="43.48652840527756" lon="2.3727575215867898"><ele>271.0</ele><time>2026-04-02T08:20:20Z</time></trkpt><trkpt lat="43.48664338637011" lon="2.37274628839729"><ele>270.0</ele><time>2026-04-02T08:20:21Z</time></trkpt><trkpt lat="43.48677773976509" lon="2.372740300930256"><ele>270.0</ele><time>2026-04-02T08:20:22Z</time></trkpt><trkpt lat="43.4869138501832" lon="2.372749128496573"><ele>270.0</ele><time>2026-04-02T08:20:23Z</time></trkpt><trkpt lat="43.48703540346341" lon="2.3727571810332706"><ele>270.0</ele><time>2026-04-02T08:20:24Z</time></trkpt><trkpt lat="43.487175843036404" lon="2.372765625648727"><ele>270.0</ele><time>2026-04-02T08:20:25Z</time></trkpt><trkpt lat="43.48733981945217" lon="2.3727777687414493"><ele>269.25</ele><time>2026-04-02T08:20:26Z</time></trkpt><trkpt lat="43.48749554390805" lon="2.3727863678988763"><ele>268.5</ele><time>2026-04-02T08:20:27Z</time></trkpt><trkpt lat="43.4876345790886" lon="2.372790907267426"><ele>267.75</ele><time>2026-04-02T08:20:28Z</time></trkpt><trkpt lat="43.4877635954936" lon="2.372798143291242"><ele>267.0</ele><time>2026-04-02T08:20:29Z</time></trkpt><trkpt lat="43.487888709579515" lon="2.3728000859731395"><ele>266.75</ele><time>2026-04-02T08:20:30Z</time></trkpt><trkpt lat="43.48801099518923" lon="2.372826969081689"><ele>266.5</ele><time>2026-04-02T08:20:31Z</time></trkpt><trkpt lat="43.48813642832436" lon="2.372804496607817"><ele>266.25</ele><time>2026-04-02T08:20:32Z</time></trkpt><trkpt lat="43.48825725710779" lon="2.3728103597544163"><ele>266.0</ele><time>2026-04-02T08:20:33Z</time></trkpt><trkpt lat="43.48836245990119" lon="2.3728178572258125"><ele>266.0</ele><time>2026-04-02T08:20:34Z</time></trkpt><trkpt lat="43.488466833529216" lon="2.372819589899263"><ele>266.0</ele><time>2026-04-02T08:20:35Z</time></trkpt><trkpt lat="43.48858649763964" lon="2.372818315870219"><ele>266.0</ele><time>2026-04-02T08:20:36Z</time></trkpt><trkpt lat="43.488720497107145" lon="2.3728207375106063"><ele>266.0</ele><time>2026-04-02T08:20:37Z</time></trkpt><trkpt lat="43.48885285578445" lon="2.3728198721032445"><ele>265.75</ele><time>2026-04-02T08:20:38Z</time></trkpt><trkpt lat="43.48899443140159" lon="2.3728231122494443"><ele>265.5</ele><time>2026-04-02T08:20:39Z</time></trkpt><trkpt lat="43.48913511492406" lon="2.3728230438483813"><ele>265.25</ele><time>2026-04-02T08:20:40Z</time></trkpt><trkpt lat="43.48926267203202" lon="2.3728263380270946"><ele>265.0</ele><time>2026-04-02T08:20:41Z</time></trkpt><trkpt lat="43.4893719640584" lon="2.372830448928278"><ele>265.0</ele><time>2026-04-02T08:20:42Z</time></trkpt><trkpt lat="43.48947622399807" lon="2.372828950973819"><ele>265.0</ele><time>2026-04-02T08:20:43Z</time></trkpt><trkpt lat="43.48959929116263" lon="2.3728257842837728"><ele>265.0</ele><time>2026-04-02T08:20:44Z</time></trkpt><trkpt lat="43.48973049362054" lon="2.372818720139989"><ele>265.0</ele><time>2026-04-02T08:20:45Z</time></trkpt><trkpt lat="43.48987385057432" lon="2.3728161193277955"><ele>263.75</ele><time>2026-04-02T08:20:46Z</time></trkpt><trkpt lat="43.490016066894945" lon="2.3728154975361355"><ele>262.5</ele><time>2026-04-02T08:20:47Z</time></trkpt><trkpt lat="43.4901387748705" lon="2.372814972732145"><ele>261.25</ele><time>2026-04-02T08:20:48Z</time></trkpt><trkpt lat="43.490252085931964" lon="2.3728143136029467"><ele>260.0</ele><time>2026-04-02T08:20:49Z</time></trkpt><trkpt lat="43.49035763915746" lon="2.3728149261689344"><ele>259.8</ele><time>2026-04-02T08:20:50Z</time></trkpt><trkpt lat="43.49044126212008" lon="2.372812922675851"><ele>259.6</ele><time>2026-04-02T08:20:51Z</time></trkpt><trkpt lat="43.490504428729494" lon="2.3728073645987293"><ele>259.4</ele><time>2026-04-02T08:20:52Z</time></trkpt><trkpt lat="43.490602848946466" lon="2.3728216374948263"><ele>259.2</ele><time>2026-04-02T08:20:54Z</time></trkpt><trkpt lat="43.4907419554908" lon="2.3728037169042504"><ele>259.0</ele><time>2026-04-02T08:20:56Z</time></trkpt><trkpt lat="43.490824641029164" lon="2.372798855087745"><ele>259.0</ele><time>2026-04-02T08:20:57Z</time></trkpt><trkpt lat="43.49092721476618" lon="2.3728000254916357"><ele>259.0</ele><time>2026-04-02T08:20:58Z</time></trkpt><trkpt lat="43.49107684747898" lon="2.372802837168818"><ele>259.0</ele><time>2026-04-02T08:20:59Z</time></trkpt><trkpt lat="43.49123512869519" lon="2.3728014433895757"><ele>259.0</ele><time>2026-04-02T08:21:00Z</time></trkpt><trkpt lat="43.49139372041358" lon="2.372805976486808"><ele>258.5</ele><time>2026-04-02T08:21:01Z</time></trkpt><trkpt lat="43.49154100258386" lon="2.3728166829123487"><ele>258.0</ele><time>2026-04-02T08:21:02Z</time></trkpt><trkpt lat="43.491670157816756" lon="2.3728349565892772"><ele>257.5</ele><time>2026-04-02T08:21:03Z</time></trkpt><trkpt lat="43.49180277405804" lon="2.3728443771107424"><ele>257.0</ele><time>2026-04-02T08:21:04Z</time></trkpt><trkpt lat="43.491951808864194" lon="2.372846150025692"><ele>256.33333333333337</ele><time>2026-04-02T08:21:05Z</time></trkpt><trkpt lat="43.49210912404152" lon="2.37284054095004"><ele>255.66666666666669</ele><time>2026-04-02T08:21:06Z</time></trkpt><trkpt lat="43.492269343328516" lon="2.372840932065623"><ele>255.0</ele><time>2026-04-02T08:21:07Z</time></trkpt><trkpt lat="43.49242898974439" lon="2.37284178063879"><ele>255.0</ele><time>2026-04-02T08:21:08Z</time></trkpt><trkpt lat="43.49259246416049" lon="2.3728415775717924"><ele>255.0</ele><time>2026-04-02T08:21:09Z</time></trkpt><trkpt lat="43.49274210715823" lon="2.3728393777189156"><ele>255.0</ele><time>2026-04-02T08:21:10Z</time></trkpt><trkpt lat="43.492890795188444" lon="2.372836386128094"><ele>254.66666666666669</ele><time>2026-04-02T08:21:11Z</time></trkpt><trkpt lat="43.49304991628788" lon="2.3728382366255167"><ele>254.33333333333334</ele><time>2026-04-02T08:21:12Z</time></trkpt><trkpt lat="43.49322934518322" lon="2.3728367605822167"><ele>254.0</ele><time>2026-04-02T08:21:13Z</time></trkpt><trkpt lat="43.49338387481393" lon="2.3728373230702853"><ele>254.0</ele><time>2026-04-02T08:21:14Z</time></trkpt><trkpt lat="43.49353049199358" lon="2.372843628684674"><ele>254.0</ele><time>2026-04-02T08:21:15Z</time></trkpt><trkpt lat="43.49367070455885" lon="2.3728496632168654"><ele>254.0</ele><time>2026-04-02T08:21:16Z</time></trkpt><trkpt lat="43.49380076280716" lon="2.372850300404268"><ele>254.0</ele><time>2026-04-02T08:21:17Z</time></trkpt><trkpt lat="43.49392242754231" lon="2.3728500353186455"><ele>254.2</ele><time>2026-04-02T08:21:18Z</time></trkpt><trkpt lat="43.49403796180601" lon="2.3728522127175595"><ele>254.39999999999998</ele><time>2026-04-02T08:21:19Z</time></trkpt><trkpt lat="43.494151266992574" lon="2.3728500944163047"><ele>254.6</ele><time>2026-04-02T08:21:20Z</time></trkpt><trkpt lat="43.494255657062325" lon="2.3728425777134685"><ele>254.8</ele><time>2026-04-02T08:21:21Z</time></trkpt><trkpt lat="43.494347995240474" lon="2.372838357609624"><ele>255.0</ele><time>2026-04-02T08:21:22Z</time></trkpt><trkpt lat="43.49443608898325" lon="2.372839679111491"><ele>255.0</ele><time>2026-04-02T08:21:23Z</time></trkpt><trkpt lat="43.494507666496304" lon="2.3728465331378943"><ele>255.0</ele><time>2026-04-02T08:21:24Z</time></trkpt><trkpt lat="43.49460190041271" lon="2.372855682726413"><ele>255.0</ele><time>2026-04-02T08:21:26Z</time></trkpt><trkpt lat="43.49470901677986" lon="2.372841857543204"><ele>255.0</ele><time>2026-04-02T08:22:11Z</time></trkpt><trkpt lat="43.49478415722466" lon="2.372873151950093"><ele>255.0</ele><time>2026-04-02T08:22:13Z</time></trkpt><trkpt lat="43.49477661137092" lon="2.3729624559797693"><ele>255.0</ele><time>2026-04-02T08:22:14Z</time></trkpt><trkpt lat="43.49468096907923" lon="2.3730354243266376"><ele>254.6</ele><time>2026-04-02T08:22:16Z</time></trkpt><trkpt lat="43.49462218322736" lon="2.3731268720375995"><ele>254.2</ele><time>2026-04-02T08:22:17Z</time></trkpt><trkpt lat="43.49453699471317" lon="2.373196801760607"><ele>253.8</ele><time>2026-04-02T08:22:18Z</time></trkpt><trkpt lat="43.49446873468135" lon="2.373290791971551"><ele>253.4</ele><time>2026-04-02T08:22:19Z</time></trkpt><trkpt lat="43.49438729360401" lon="2.3733970389975423"><ele>253.0</ele><time>2026-04-02T08:22:20Z</time></trkpt><trkpt lat="43.49430492152805" lon="2.373498058542954"><ele>252.99999999999997</ele><time>2026-04-02T08:22:21Z</time></trkpt><trkpt lat="43.494228841358655" lon="2.373583429389645"><ele>253.0</ele><time>2026-04-02T08:22:22Z</time></trkpt><trkpt lat="43.494164316363594" lon="2.3736592316534466"><ele>253.0</ele><time>2026-04-02T08:22:23Z</time></trkpt><trkpt lat="43.494105508461764" lon="2.3737280887584693"><ele>253.0</ele><time>2026-04-02T08:22:24Z</time></trkpt><trkpt lat="43.49405181796668" lon="2.3737901635180028"><ele>252.99999999999997</ele><time>2026-04-02T08:22:25Z</time></trkpt><trkpt lat="43.49395728878588" lon="2.373890179071388"><ele>253.0</ele><time>2026-04-02T08:22:27Z</time></trkpt><trkpt lat="43.493876788521504" lon="2.3739795609373076"><ele>252.99999999999997</ele><time>2026-04-02T08:22:29Z</time></trkpt><trkpt lat="43.49380679317728" lon="2.3740523234241584"><ele>253.0</ele><time>2026-04-02T08:22:31Z</time></trkpt><trkpt lat="43.493758199982054" lon="2.374115888821209"><ele>253.0</ele><time>2026-04-02T08:22:33Z</time></trkpt><trkpt lat="43.493709187310685" lon="2.3741860150413037"><ele>253.0</ele><time>2026-04-02T08:22:36Z</time></trkpt><trkpt lat="43.49360636389966" lon="2.3742791168389665"><ele>252.99999999999997</ele><time>2026-04-02T08:22:41Z</time></trkpt><trkpt lat="43.493529529608644" lon="2.374364652024303"><ele>253.0</ele><time>2026-04-02T08:22:43Z</time></trkpt><trkpt lat="43.49353302979215" lon="2.3744586215356502"><ele>253.0</ele><time>2026-04-02T08:22:46Z</time></trkpt><trkpt lat="43.49362929226849" lon="2.374495946998335"><ele>253.0</ele><time>2026-04-02T08:22:47Z</time></trkpt><trkpt lat="43.493721859621566" lon="2.374501427470053"><ele>253.0</ele><time>2026-04-02T08:22:48Z</time></trkpt><trkpt lat="43.493817358963604" lon="2.374517615401647"><ele>253.0</ele><time>2026-04-02T08:22:49Z</time></trkpt><trkpt lat="43.493927173399065" lon="2.374542767534073"><ele>253.0</ele><time>2026-04-02T08:22:50Z</time></trkpt><trkpt lat="43.494048191664994" lon="2.374606092626025"><ele>252.5</ele><time>2026-04-02T08:22:51Z</time></trkpt><trkpt lat="43.49418060080915" lon="2.3746494331494263"><ele>252.0</ele><time>2026-04-02T08:22:52Z</time></trkpt><trkpt lat="43.49432303280353" lon="2.3746979923088043"><ele>251.5</ele><time>2026-04-02T08:22:53Z</time></trkpt><trkpt lat="43.49446507668067" lon="2.3747500631144898"><ele>251.0</ele><time>2026-04-02T08:22:54Z</time></trkpt><trkpt lat="43.4946142228584" lon="2.374801532684398"><ele>250.66666666666669</ele><time>2026-04-02T08:22:55Z</time></trkpt><trkpt lat="43.494765876770586" lon="2.374830530778851"><ele>250.33333333333331</ele><time>2026-04-02T08:22:56Z</time></trkpt><trkpt lat="43.49491191872261" lon="2.374881205963711"><ele>250.0</ele><time>2026-04-02T08:22:57Z</time></trkpt><trkpt lat="43.49505713289782" lon="2.374932412399477"><ele>250.0</ele><time>2026-04-02T08:22:58Z</time></trkpt><trkpt lat="43.49518801324763" lon="2.3749772584999658"><ele>250.0</ele><time>2026-04-02T08:22:59Z</time></trkpt><trkpt lat="43.49531529191064" lon="2.3750102374063276"><ele>250.0</ele><time>2026-04-02T08:23:00Z</time></trkpt><trkpt lat="43.49544046021496" lon="2.375061748805105"><ele>250.0</ele><time>2026-04-02T08:23:01Z</time></trkpt><trkpt lat="43.49557059962925" lon="2.375103367850157"><ele>249.5</ele><time>2026-04-02T08:23:02Z</time></trkpt><trkpt lat="43.495702071413284" lon="2.375148523721172"><ele>249.0</ele><time>2026-04-02T08:23:03Z</time></trkpt><trkpt lat="43.49582960104658" lon="2.3751924413941867"><ele>248.5</ele><time>2026-04-02T08:23:04Z</time></trkpt><trkpt lat="43.49596121634514" lon="2.3752347264495453"><ele>248.0</ele><time>2026-04-02T08:23:05Z</time></trkpt><trkpt lat="43.496080981410806" lon="2.375288337792538"><ele>248.0</ele><time>2026-04-02T08:23:06Z</time></trkpt><trkpt lat="43.49619504933504" lon="2.375326682282867"><ele>248.0</ele><time>2026-04-02T08:23:07Z</time></trkpt><trkpt lat="43.49629976412488" lon="2.3753604315826484"><ele>248.0</ele><time>2026-04-02T08:23:08Z</time></trkpt><trkpt lat="43.496394015519364" lon="2.3753852356581957"><ele>248.0</ele><time>2026-04-02T08:23:09Z</time></trkpt><trkpt lat="43.49648251643782" lon="2.3753795031585447"><ele>248.0</ele><time>2026-04-02T08:23:10Z</time></trkpt><trkpt lat="43.49655355428983" lon="2.37540742855209"><ele>247.8</ele><time>2026-04-02T08:23:11Z</time></trkpt><trkpt lat="43.496650209515344" lon="2.375441212266251"><ele>247.60000000000002</ele><time>2026-04-02T08:23:13Z</time></trkpt><trkpt lat="43.49676157965863" lon="2.3755065412371983"><ele>247.39999999999998</ele><time>2026-04-02T08:23:56Z</time></trkpt><trkpt lat="43.49683597719441" lon="2.375539984601058"><ele>247.2</ele><time>2026-04-02T08:23:57Z</time></trkpt><trkpt lat="43.4969171781407" lon="2.375633091825878"><ele>247.0</ele><time>2026-04-02T08:23:59Z</time></trkpt><trkpt lat="43.496879731670035" lon="2.3758052681565185"><ele>246.2</ele><time>2026-04-02T08:24:01Z</time></trkpt><trkpt lat="43.49684233516939" lon="2.375922424469567"><ele>245.39999999999998</ele><time>2026-04-02T08:24:02Z</time></trkpt><trkpt lat="43.49680630484565" lon="2.3760592130135754"><ele>244.60000000000002</ele><time>2026-04-02T08:24:03Z</time></trkpt><trkpt lat="43.49676211275926" lon="2.3761884005886347"><ele>243.8</ele><time>2026-04-02T08:24:04Z</time></trkpt><trkpt lat="43.4967029853772" lon="2.376273402610751"><ele>243.0</ele><time>2026-04-02T08:24:05Z</time></trkpt><trkpt lat="43.4966146255356" lon="2.3763090185503715"><ele>243.0</ele><time>2026-04-02T08:24:06Z</time></trkpt><trkpt lat="43.49650068180275" lon="2.3762738676414403"><ele>243.0</ele><time>2026-04-02T08:24:07Z</time></trkpt><trkpt lat="43.496371758396386" lon="2.376296195017817"><ele>243.0</ele><time>2026-04-02T08:24:08Z</time></trkpt><trkpt lat="43.496248779690376" lon="2.376304667346595"><ele>243.0</ele><time>2026-04-02T08:24:09Z</time></trkpt><trkpt lat="43.496135667910266" lon="2.376313416781506"><ele>243.0</ele><time>2026-04-02T08:24:10Z</time></trkpt><trkpt lat="43.49603420605256" lon="2.3763214481194623"><ele>243.0</ele><time>2026-04-02T08:24:11Z</time></trkpt><trkpt lat="43.49593899141445" lon="2.376329592273548"><ele>243.0</ele><time>2026-04-02T08:24:12Z</time></trkpt><trkpt lat="43.49585762867067" lon="2.3763647411149718"><ele>243.0</ele><time>2026-04-02T08:24:13Z</time></trkpt><trkpt lat="43.49580828732316" lon="2.37645275472968"><ele>243.0</ele><time>2026-04-02T08:24:14Z</time></trkpt><trkpt lat="43.4957771615989" lon="2.3765920618471625"><ele>243.0</ele><time>2026-04-02T08:24:15Z</time></trkpt><trkpt lat="43.49573971631707" lon="2.376763293765614"><ele>243.0</ele><time>2026-04-02T08:24:16Z</time></trkpt><trkpt lat="43.49568744070074" lon="2.376941585663167"><ele>243.0</ele><time>2026-04-02T08:24:17Z</time></trkpt><trkpt lat="43.49562677958061" lon="2.3771092101754543"><ele>243.0</ele><time>2026-04-02T08:24:18Z</time></trkpt><trkpt lat="43.495562997866095" lon="2.377270627956256"><ele>242.75</ele><time>2026-04-02T08:24:19Z</time></trkpt><trkpt lat="43.495501430427645" lon="2.377449693786758"><ele>242.5</ele><time>2026-04-02T08:24:20Z</time></trkpt><trkpt lat="43.495448985203474" lon="2.377640085317981"><ele>242.25</ele><time>2026-04-02T08:24:21Z</time></trkpt><trkpt lat="43.49538773593845" lon="2.377831235369996"><ele>242.0</ele><time>2026-04-02T08:24:22Z</time></trkpt><trkpt lat="43.495329608733165" lon="2.3780220790208797"><ele>243.75</ele><time>2026-04-02T08:24:23Z</time></trkpt><trkpt lat="43.49527719012969" lon="2.378213392068636"><ele>245.5</ele><time>2026-04-02T08:24:24Z</time></trkpt><trkpt lat="43.49522224603362" lon="2.3783838544880056"><ele>247.25</ele><time>2026-04-02T08:24:25Z</time></trkpt><trkpt lat="43.4951577278186" lon="2.3785378958111485"><ele>249.0</ele><time>2026-04-02T08:24:26Z</time></trkpt><trkpt lat="43.495068295216306" lon="2.3786529279604127"><ele>249.0</ele><time>2026-04-02T08:24:27Z</time></trkpt><trkpt lat="43.4949686225121" lon="2.378784598954041"><ele>249.0</ele><time>2026-04-02T08:24:28Z</time></trkpt><trkpt lat="43.49488110975636" lon="2.3789221480049525"><ele>249.0</ele><time>2026-04-02T08:24:29Z</time></trkpt><trkpt lat="43.49478644613744" lon="2.379029309172684"><ele>249.0</ele><time>2026-04-02T08:24:30Z</time></trkpt><trkpt lat="43.494710858196" lon="2.379122851930995"><ele>249.0</ele><time>2026-04-02T08:24:31Z</time></trkpt><trkpt lat="43.49465564713348" lon="2.3792007362817795"><ele>248.99999999999997</ele><time>2026-04-02T08:24:32Z</time></trkpt><trkpt lat="43.49461222686555" lon="2.3792642786859832"><ele>248.99999999999997</ele><time>2026-04-02T08:24:34Z</time></trkpt><trkpt lat="43.494591625129466" lon="2.379374014558196"><ele>249.0</ele><time>2026-04-02T08:24:44Z</time></trkpt><trkpt lat="43.49468308300981" lon="2.379511367811927"><ele>249.0</ele><time>2026-04-02T08:24:46Z</time></trkpt><trkpt lat="43.49479015886128" lon="2.3795818154745154"><ele>249.0</ele><time>2026-04-02T08:24:47Z</time></trkpt><trkpt lat="43.494888850976956" lon="2.379680618954646"><ele>249.0</ele><time>2026-04-02T08:24:48Z</time></trkpt><trkpt lat="43.49496132863911" lon="2.3797881754395633"><ele>249.0</ele><time>2026-04-02T08:24:49Z</time></trkpt><trkpt lat="43.49504049051528" lon="2.379891642544255"><ele>249.0</ele><time>2026-04-02T08:24:50Z</time></trkpt><trkpt lat="43.49512805172784" lon="2.379998443943527"><ele>249.0</ele><time>2026-04-02T08:24:51Z</time></trkpt><trkpt lat="43.49521519865645" lon="2.3801206962869617"><ele>249.0</ele><time>2026-04-02T08:24:52Z</time></trkpt><trkpt lat="43.49529630882054" lon="2.3802565262669995"><ele>249.0</ele><time>2026-04-02T08:24:53Z</time></trkpt><trkpt lat="43.49537784598355" lon="2.3803986102407"><ele>249.0</ele><time>2026-04-02T08:24:54Z</time></trkpt><trkpt lat="43.49546566651883" lon="2.380533014066659"><ele>248.25</ele><time>2026-04-02T08:24:55Z</time></trkpt><trkpt lat="43.49556249061339" lon="2.3806593529152655"><ele>247.5</ele><time>2026-04-02T08:24:56Z</time></trkpt><trkpt lat="43.49566125734672" lon="2.3807884323337163"><ele>246.75</ele><time>2026-04-02T08:24:57Z</time></trkpt><trkpt lat="43.49575221875078" lon="2.3809322346161883"><ele>246.0</ele><time>2026-04-02T08:24:58Z</time></trkpt><trkpt lat="43.49584684593977" lon="2.3810774433032993"><ele>246.0</ele><time>2026-04-02T08:24:59Z</time></trkpt><trkpt lat="43.49594606372191" lon="2.3812107316503903"><ele>246.0</ele><time>2026-04-02T08:25:00Z</time></trkpt><trkpt lat="43.4960465306227" lon="2.3813514654701162"><ele>246.0</ele><time>2026-04-02T08:25:01Z</time></trkpt><trkpt lat="43.49613477373282" lon="2.381482119676457"><ele>246.0</ele><time>2026-04-02T08:25:02Z</time></trkpt><trkpt lat="43.496206556847966" lon="2.3815903587744316"><ele>245.5</ele><time>2026-04-02T08:25:03Z</time></trkpt><trkpt lat="43.49626274867843" lon="2.381688155099435"><ele>245.0</ele><time>2026-04-02T08:25:04Z</time></trkpt><trkpt lat="43.496300532831896" lon="2.381793280541722"><ele>244.5</ele><time>2026-04-02T08:25:05Z</time></trkpt><trkpt lat="43.496313698040744" lon="2.3819080102445236"><ele>244.0</ele><time>2026-04-02T08:25:06Z</time></trkpt><trkpt lat="43.496335560998986" lon="2.3820123874400463"><ele>243.5</ele><time>2026-04-02T08:25:07Z</time></trkpt><trkpt lat="43.496401053603215" lon="2.3820837692999373"><ele>243.0</ele><time>2026-04-02T08:25:08Z</time></trkpt><trkpt lat="43.4964934109412" lon="2.3821058591693767"><ele>243.0</ele><time>2026-04-02T08:25:09Z</time></trkpt><trkpt lat="43.49658991199875" lon="2.382121415012182"><ele>243.0</ele><time>2026-04-02T08:25:10Z</time></trkpt><trkpt lat="43.496669423599265" lon="2.382197324168663"><ele>243.0</ele><time>2026-04-02T08:25:11Z</time></trkpt><trkpt lat="43.49674277305315" lon="2.38232995820362"><ele>243.0</ele><time>2026-04-02T08:25:12Z</time></trkpt><trkpt lat="43.49683748230287" lon="2.382477158699732"><ele>243.0</ele><time>2026-04-02T08:25:13Z</time></trkpt><trkpt lat="43.49695279025537" lon="2.382640670713081"><ele>243.0</ele><time>2026-04-02T08:25:14Z</time></trkpt><trkpt lat="43.497077745241306" lon="2.382819054081485"><ele>243.0</ele><time>2026-04-02T08:25:15Z</time></trkpt><trkpt lat="43.49718776161526" lon="2.3829782954849303"><ele>242.5</ele><time>2026-04-02T08:25:16Z</time></trkpt><trkpt lat="43.49728788599195" lon="2.3831234366625047"><ele>242.0</ele><time>2026-04-02T08:25:17Z</time></trkpt><trkpt lat="43.49738026623143" lon="2.383261744348499"><ele>241.5</ele><time>2026-04-02T08:25:18Z</time></trkpt><trkpt lat="43.49746859535193" lon="2.3833953003730786"><ele>241.0</ele><time>2026-04-02T08:25:19Z</time></trkpt><trkpt lat="43.49755489604291" lon="2.3835148442522653"><ele>241.0</ele><time>2026-04-02T08:25:20Z</time></trkpt><trkpt lat="43.49764930759171" lon="2.383639812607037"><ele>241.0</ele><time>2026-04-02T08:25:21Z</time></trkpt><trkpt lat="43.49775270762789" lon="2.383778593439738"><ele>241.0</ele><time>2026-04-02T08:25:22Z</time></trkpt><trkpt lat="43.49786252972004" lon="2.3839305651067395"><ele>241.0</ele><time>2026-04-02T08:25:23Z</time></trkpt><trkpt lat="43.49797612996407" lon="2.384083284685222"><ele>240.33333333333331</ele><time>2026-04-02T08:25:24Z</time></trkpt><trkpt lat="43.49809705462942" lon="2.384245026679377"><ele>239.66666666666669</ele><time>2026-04-02T08:25:25Z</time></trkpt><trkpt lat="43.4982144134881" lon="2.3844083774872815"><ele>239.0</ele><time>2026-04-02T08:25:26Z</time></trkpt><trkpt lat="43.498331159180125" lon="2.384575250371504"><ele>238.66666666666669</ele><time>2026-04-02T08:25:27Z</time></trkpt><trkpt lat="43.49844594283162" lon="2.3847400177290967"><ele>238.33333333333331</ele><time>2026-04-02T08:25:28Z</time></trkpt><trkpt lat="43.498551812955625" lon="2.384894321275493"><ele>238.0</ele><time>2026-04-02T08:25:29Z</time></trkpt><trkpt lat="43.498650496214935" lon="2.3850329792447478"><ele>238.0</ele><time>2026-04-02T08:25:30Z</time></trkpt><trkpt lat="43.498741097078586" lon="2.385164618263564"><ele>238.0</ele><time>2026-04-02T08:25:31Z</time></trkpt><trkpt lat="43.49882305102454" lon="2.385276990408338"><ele>238.0</ele><time>2026-04-02T08:25:32Z</time></trkpt><trkpt lat="43.49888712096307" lon="2.3853716561809666"><ele>238.0</ele><time>2026-04-02T08:25:33Z</time></trkpt><trkpt lat="43.498937762169085" lon="2.385455194612823"><ele>238.0</ele><time>2026-04-02T08:25:34Z</time></trkpt><trkpt lat="43.49899850271531" lon="2.3855747455679612"><ele>236.49999999999997</ele><time>2026-04-02T08:25:36Z</time></trkpt><trkpt lat="43.49902829636058" lon="2.3856907123345734"><ele>235.0</ele><time>2026-04-02T08:25:39Z</time></trkpt><trkpt lat="43.49905188651054" lon="2.385778335817963"><ele>233.5</ele><time>2026-04-02T08:25:40Z</time></trkpt><trkpt lat="43.49901844236883" lon="2.385886759540132"><ele>232.0</ele><time>2026-04-02T08:25:41Z</time></trkpt><trkpt lat="43.49900200626778" lon="2.385980313548778"><ele>230.49999999999997</ele><time>2026-04-02T08:25:42Z</time></trkpt><trkpt lat="43.498990112989404" lon="2.386089982785505"><ele>229.0</ele><time>2026-04-02T08:25:43Z</time></trkpt><trkpt lat="43.498993828863775" lon="2.3862025420636717"><ele>228.99999999999997</ele><time>2026-04-02T08:25:44Z</time></trkpt><trkpt lat="43.49902653105045" lon="2.386285509230397"><ele>229.0</ele><time>2026-04-02T08:25:45Z</time></trkpt><trkpt lat="43.49907238836173" lon="2.386369766178716"><ele>229.0</ele><time>2026-04-02T08:25:46Z</time></trkpt><trkpt lat="43.49912933608859" lon="2.386443437789673"><ele>229.0</ele><time>2026-04-02T08:25:47Z</time></trkpt><trkpt lat="43.49919835658608" lon="2.3865021056948375"><ele>228.99999999999997</ele><time>2026-04-02T08:25:48Z</time></trkpt><trkpt lat="43.499288234326755" lon="2.3865409686307864"><ele>229.0</ele><time>2026-04-02T08:25:49Z</time></trkpt><trkpt lat="43.49938835779923" lon="2.3865648152858543"><ele>228.0</ele><time>2026-04-02T08:25:50Z</time></trkpt><trkpt lat="43.499491499314814" lon="2.3865657029626295"><ele>226.99999999999997</ele><time>2026-04-02T08:25:51Z</time></trkpt><trkpt lat="43.49958041451406" lon="2.3865538148180065"><ele>225.99999999999997</ele><time>2026-04-02T08:25:52Z</time></trkpt><trkpt lat="43.49966598332563" lon="2.3865801716483777"><ele>225.0</ele><time>2026-04-02T08:25:53Z</time></trkpt><trkpt lat="43.499750599002056" lon="2.3866680137606457"><ele>224.0</ele><time>2026-04-02T08:25:54Z</time></trkpt><trkpt lat="43.49982096670309" lon="2.3867729462191716"><ele>224.00000000000003</ele><time>2026-04-02T08:25:55Z</time></trkpt><trkpt lat="43.499890150846525" lon="2.3868712094901214"><ele>224.0</ele><time>2026-04-02T08:25:56Z</time></trkpt><trkpt lat="43.49994306325632" lon="2.386955076745688"><ele>224.0</ele><time>2026-04-02T08:25:57Z</time></trkpt><trkpt lat="43.49998027294273" lon="2.3870259899172015"><ele>224.0</ele><time>2026-04-02T08:25:59Z</time></trkpt><trkpt lat="43.500042749656174" lon="2.3871027061884877"><ele>224.00000000000003</ele><time>2026-04-02T08:26:01Z</time></trkpt><trkpt lat="43.50008532213039" lon="2.3871864083626058"><ele>224.0</ele><time>2026-04-02T08:26:02Z</time></trkpt><trkpt lat="43.50013902457146" lon="2.387269032968567"><ele>223.66666666666669</ele><time>2026-04-02T08:26:03Z</time></trkpt><trkpt lat="43.50019126417768" lon="2.3873364825360563"><ele>223.33333333333334</ele><time>2026-04-02T08:26:04Z</time></trkpt><trkpt lat="43.50023818277879" lon="2.3874009916704826"><ele>223.0</ele><time>2026-04-02T08:26:05Z</time></trkpt><trkpt lat="43.500304134714526" lon="2.3874954074482413"><ele>222.66666666666669</ele><time>2026-04-02T08:26:07Z</time></trkpt><trkpt lat="43.50032385861461" lon="2.3874008227472387"><ele>222.33333333333334</ele><time>2026-04-02T08:26:12Z</time></trkpt><trkpt lat="43.50022219859829" lon="2.3872849500059425"><ele>222.0</ele><time>2026-04-02T08:26:14Z</time></trkpt><trkpt lat="43.500162188900084" lon="2.387211963824783"><ele>222.39999999999998</ele><time>2026-04-02T08:26:15Z</time></trkpt><trkpt lat="43.50010343634538" lon="2.38712970598595"><ele>222.79999999999998</ele><time>2026-04-02T08:26:16Z</time></trkpt><trkpt lat="43.50003513503103" lon="2.387028449959556"><ele>223.2</ele><time>2026-04-02T08:26:17Z</time></trkpt><trkpt lat="43.49996668332212" lon="2.3869306348832757"><ele>223.6</ele><time>2026-04-02T08:26:18Z</time></trkpt><trkpt lat="43.49990030932057" lon="2.386829096638344"><ele>224.0</ele><time>2026-04-02T08:26:19Z</time></trkpt><trkpt lat="43.49983514988102" lon="2.3867247166571426"><ele>224.00000000000003</ele><time>2026-04-02T08:26:20Z</time></trkpt><trkpt lat="43.49976749703519" lon="2.3866270171912185"><ele>224.0</ele><time>2026-04-02T08:26:21Z</time></trkpt><trkpt lat="43.49970908514806" lon="2.386536881362731"><ele>224.0</ele><time>2026-04-02T08:26:22Z</time></trkpt><trkpt lat="43.49966618724625" lon="2.3864539139203096"><ele>224.0</ele><time>2026-04-02T08:26:23Z</time></trkpt><trkpt lat="43.49964265304322" lon="2.3863585954933897"><ele>224.00000000000003</ele><time>2026-04-02T08:26:24Z</time></trkpt><trkpt lat="43.499642639806964" lon="2.386224927279044"><ele>224.0</ele><time>2026-04-02T08:26:25Z</time></trkpt><trkpt lat="43.499666436099005" lon="2.3860735008235308"><ele>224.25</ele><time>2026-04-02T08:26:26Z</time></trkpt><trkpt lat="43.49967519591855" lon="2.385921251494981"><ele>224.5</ele><time>2026-04-02T08:26:27Z</time></trkpt><trkpt lat="43.49964432433098" lon="2.385777460832613"><ele>224.75</ele><time>2026-04-02T08:26:28Z</time></trkpt><trkpt lat="43.49956800686544" lon="2.3856580226413913"><ele>225.0</ele><time>2026-04-02T08:26:29Z</time></trkpt><trkpt lat="43.499462908673195" lon="2.385581764773774"><ele>226.0</ele><time>2026-04-02T08:26:30Z</time></trkpt><trkpt lat="43.49934011365056" lon="2.3855591848204534"><ele>227.0</ele><time>2026-04-02T08:26:31Z</time></trkpt><trkpt lat="43.49922025896472" lon="2.3855837055330174"><ele>228.0</ele><time>2026-04-02T08:26:32Z</time></trkpt><trkpt lat="43.49912368398693" lon="2.385662513651633"><ele>229.0</ele><time>2026-04-02T08:26:33Z</time></trkpt><trkpt lat="43.499051764454784" lon="2.3857856892824234"><ele>229.0</ele><time>2026-04-02T08:26:34Z</time></trkpt><trkpt lat="43.49900561810035" lon="2.385938503679721"><ele>229.0</ele><time>2026-04-02T08:26:35Z</time></trkpt><trkpt lat="43.498988211962285" lon="2.3861080814557556"><ele>229.0</ele><time>2026-04-02T08:26:36Z</time></trkpt><trkpt lat="43.49900397437738" lon="2.3862774772198208"><ele>229.0</ele><time>2026-04-02T08:26:37Z</time></trkpt><trkpt lat="43.499026508961784" lon="2.3864577831217213"><ele>227.75</ele><time>2026-04-02T08:26:38Z</time></trkpt><trkpt lat="43.49902515128202" lon="2.386643115124771"><ele>226.5</ele><time>2026-04-02T08:26:39Z</time></trkpt><trkpt lat="43.498983734608224" lon="2.3868255016236297"><ele>225.25</ele><time>2026-04-02T08:26:40Z</time></trkpt><trkpt lat="43.49887738719967" lon="2.38696081184831"><ele>224.0</ele><time>2026-04-02T08:26:41Z</time></trkpt><trkpt lat="43.49880252247863" lon="2.387125998527667"><ele>224.0</ele><time>2026-04-02T08:26:42Z</time></trkpt><trkpt lat="43.49871121662088" lon="2.3872793451953167"><ele>224.0</ele><time>2026-04-02T08:26:43Z</time></trkpt><trkpt lat="43.49862778354812" lon="2.3874462290072658"><ele>224.0</ele><time>2026-04-02T08:26:44Z</time></trkpt><trkpt lat="43.498548133283876" lon="2.3876144120292757"><ele>224.0</ele><time>2026-04-02T08:26:45Z</time></trkpt><trkpt lat="43.49846515697619" lon="2.3877854259653324"><ele>224.0</ele><time>2026-04-02T08:26:46Z</time></trkpt><trkpt lat="43.498391266200336" lon="2.387968890114263"><ele>224.0</ele><time>2026-04-02T08:26:47Z</time></trkpt><trkpt lat="43.498340092109146" lon="2.388169848817511"><ele>224.0</ele><time>2026-04-02T08:26:48Z</time></trkpt><trkpt lat="43.49830584832689" lon="2.3883857486520936"><ele>224.33333333333334</ele><time>2026-04-02T08:26:49Z</time></trkpt><trkpt lat="43.4982745999477" lon="2.388601016927664"><ele>224.66666666666669</ele><time>2026-04-02T08:26:50Z</time></trkpt><trkpt lat="43.49824769778915" lon="2.3888217164047716"><ele>225.0</ele><time>2026-04-02T08:26:51Z</time></trkpt><trkpt lat="43.498219324577846" lon="2.389046435070784"><ele>225.0</ele><time>2026-04-02T08:26:52Z</time></trkpt><trkpt lat="43.49819334950412" lon="2.389268633232658"><ele>225.0</ele><time>2026-04-02T08:26:53Z</time></trkpt><trkpt lat="43.49817265637088" lon="2.3894944003550034"><ele>225.0</ele><time>2026-04-02T08:26:54Z</time></trkpt><trkpt lat="43.49815357477372" lon="2.3897236680699154"><ele>225.33333333333331</ele><time>2026-04-02T08:26:55Z</time></trkpt><trkpt lat="43.498132835520884" lon="2.3899420420053183"><ele>225.66666666666666</ele><time>2026-04-02T08:26:56Z</time></trkpt><trkpt lat="43.49811086681523" lon="2.390150450090213"><ele>226.0</ele><time>2026-04-02T08:26:57Z</time></trkpt><trkpt lat="43.498089997916594" lon="2.390354089485874"><ele>225.5</ele><time>2026-04-02T08:26:58Z</time></trkpt><trkpt lat="43.49807297101993" lon="2.390560641610182"><ele>225.0</ele><time>2026-04-02T08:26:59Z</time></trkpt><trkpt lat="43.4980534130022" lon="2.390762968522324"><ele>224.5</ele><time>2026-04-02T08:27:00Z</time></trkpt><trkpt lat="43.49803415360865" lon="2.3909661064788104"><ele>224.0</ele><time>2026-04-02T08:27:01Z</time></trkpt><trkpt lat="43.49801375384175" lon="2.3911652556794083"><ele>223.75</ele><time>2026-04-02T08:27:02Z</time></trkpt><trkpt lat="43.49799448665005" lon="2.391365390957393"><ele>223.5</ele><time>2026-04-02T08:27:03Z</time></trkpt><trkpt lat="43.497977909937035" lon="2.3915645356878197"><ele>223.25</ele><time>2026-04-02T08:27:04Z</time></trkpt><trkpt lat="43.49796804802365" lon="2.3917664460248726"><ele>223.0</ele><time>2026-04-02T08:27:05Z</time></trkpt><trkpt lat="43.497959096343315" lon="2.3919691560679195"><ele>223.0</ele><time>2026-04-02T08:27:06Z</time></trkpt><trkpt lat="43.49794955043771" lon="2.3921684623438066"><ele>223.0</ele><time>2026-04-02T08:27:07Z</time></trkpt><trkpt lat="43.49793386213031" lon="2.392361415015233"><ele>223.0</ele><time>2026-04-02T08:27:08Z</time></trkpt><trkpt lat="43.49791617194826" lon="2.39254104205829"><ele>223.0</ele><time>2026-04-02T08:27:09Z</time></trkpt><trkpt lat="43.49789690419314" lon="2.392706751453812"><ele>223.8</ele><time>2026-04-02T08:27:10Z</time></trkpt><trkpt lat="43.49787900431438" lon="2.3928631319575224"><ele>224.60000000000002</ele><time>2026-04-02T08:27:11Z</time></trkpt><trkpt lat="43.49786007514664" lon="2.393011079526323"><ele>225.39999999999998</ele><time>2026-04-02T08:27:12Z</time></trkpt><trkpt lat="43.49784116659692" lon="2.393153635720637"><ele>226.2</ele><time>2026-04-02T08:27:13Z</time></trkpt><trkpt lat="43.497823443915664" lon="2.3932893898052763"><ele>227.0</ele><time>2026-04-02T08:27:14Z</time></trkpt><trkpt lat="43.497806775665495" lon="2.3934312842187606"><ele>227.0</ele><time>2026-04-02T08:27:15Z</time></trkpt><trkpt lat="43.49779045916217" lon="2.393582583899095"><ele>227.0</ele><time>2026-04-02T08:27:16Z</time></trkpt><trkpt lat="43.497776416626024" lon="2.393740090722505"><ele>227.0</ele><time>2026-04-02T08:27:17Z</time></trkpt><trkpt lat="43.49775999462341" lon="2.3938894349359945"><ele>227.0</ele><time>2026-04-02T08:27:18Z</time></trkpt><trkpt lat="43.49774679728634" lon="2.394028715637369"><ele>227.0</ele><time>2026-04-02T08:27:19Z</time></trkpt><trkpt lat="43.49773111267914" lon="2.394158509000093"><ele>227.16666666666669</ele><time>2026-04-02T08:27:20Z</time></trkpt><trkpt lat="43.497716284217475" lon="2.394287581288255"><ele>227.33333333333334</ele><time>2026-04-02T08:27:21Z</time></trkpt><trkpt lat="43.49770214662954" lon="2.394416437746338"><ele>227.5</ele><time>2026-04-02T08:27:22Z</time></trkpt><trkpt lat="43.497690304524255" lon="2.3945344513094797"><ele>227.66666666666669</ele><time>2026-04-02T08:27:23Z</time></trkpt><trkpt lat="43.49768162611553" lon="2.3946369521729234"><ele>227.83333333333334</ele><time>2026-04-02T08:27:24Z</time></trkpt><trkpt lat="43.49766928920714" lon="2.394734416720411"><ele>228.0</ele><time>2026-04-02T08:27:25Z</time></trkpt><trkpt lat="43.497640684713005" lon="2.3948186235718136"><ele>228.0</ele><time>2026-04-02T08:27:26Z</time></trkpt><trkpt lat="43.497601522600085" lon="2.3948961189816216"><ele>228.0</ele><time>2026-04-02T08:27:27Z</time></trkpt><trkpt lat="43.49756385055114" lon="2.3950546915022026"><ele>228.0</ele><time>2026-04-02T08:27:29Z</time></trkpt><trkpt lat="43.49758858756462" lon="2.3952099766875716"><ele>228.0</ele><time>2026-04-02T08:27:31Z</time></trkpt><trkpt lat="43.49761307926864" lon="2.3953543266106068"><ele>228.0</ele><time>2026-04-02T08:27:33Z</time></trkpt><trkpt lat="43.49760804969675" lon="2.3955044547776767"><ele>228.0</ele><time>2026-04-02T08:27:35Z</time></trkpt><trkpt lat="43.49759441228132" lon="2.395630343720896"><ele>228.0</ele><time>2026-04-02T08:27:37Z</time></trkpt><trkpt lat="43.4975859510596" lon="2.3957493341132223"><ele>228.0</ele><time>2026-04-02T08:27:39Z</time></trkpt><trkpt lat="43.49755410167276" lon="2.395932231459316"><ele>228.0</ele><time>2026-04-02T08:27:41Z</time></trkpt><trkpt lat="43.49754358237774" lon="2.3960316939787005"><ele>228.0</ele><time>2026-04-02T08:27:42Z</time></trkpt><trkpt lat="43.49754957246867" lon="2.3961211891173333"><ele>228.0</ele><time>2026-04-02T08:27:43Z</time></trkpt><trkpt lat="43.49752989171475" lon="2.3962866907320244"><ele>228.0</ele><time>2026-04-02T08:27:45Z</time></trkpt><trkpt lat="43.49751809788289" lon="2.3963755643185327"><ele>228.0</ele><time>2026-04-02T08:27:46Z</time></trkpt><trkpt lat="43.49750735888088" lon="2.396467758135101"><ele>228.0</ele><time>2026-04-02T08:27:47Z</time></trkpt><trkpt lat="43.49749893615749" lon="2.396570164698651"><ele>228.0</ele><time>2026-04-02T08:27:48Z</time></trkpt><trkpt lat="43.497488564916225" lon="2.3966884484640687"><ele>228.0</ele><time>2026-04-02T08:27:49Z</time></trkpt><trkpt lat="43.49747591857382" lon="2.3968095589285174"><ele>227.66666666666666</ele><time>2026-04-02T08:27:50Z</time></trkpt><trkpt lat="43.49746411173907" lon="2.3969310677122952"><ele>227.33333333333331</ele><time>2026-04-02T08:27:51Z</time></trkpt><trkpt lat="43.49745359183396" lon="2.3970421231414605"><ele>227.0</ele><time>2026-04-02T08:27:52Z</time></trkpt><trkpt lat="43.497441717995365" lon="2.3971574485143115"><ele>226.66666666666666</ele><time>2026-04-02T08:27:53Z</time></trkpt><trkpt lat="43.49742866553056" lon="2.397282743274082"><ele>226.33333333333331</ele><time>2026-04-02T08:27:54Z</time></trkpt><trkpt lat="43.497414708747414" lon="2.39741440790162"><ele>226.0</ele><time>2026-04-02T08:27:55Z</time></trkpt><trkpt lat="43.49740080691443" lon="2.3975488631936206"><ele>226.0</ele><time>2026-04-02T08:27:56Z</time></trkpt><trkpt lat="43.49738494845784" lon="2.39768559437406"><ele>226.00000000000003</ele><time>2026-04-02T08:27:57Z</time></trkpt><trkpt lat="43.497369955157374" lon="2.3978286587664637"><ele>226.00000000000003</ele><time>2026-04-02T08:27:58Z</time></trkpt><trkpt lat="43.49735211290857" lon="2.397973708211722"><ele>226.0</ele><time>2026-04-02T08:27:59Z</time></trkpt><trkpt lat="43.497336513516416" lon="2.398119252898011"><ele>226.0</ele><time>2026-04-02T08:28:00Z</time></trkpt><trkpt lat="43.497322365256124" lon="2.398259498626993"><ele>226.0</ele><time>2026-04-02T08:28:01Z</time></trkpt><trkpt lat="43.497310644944626" lon="2.398393675735"><ele>226.00000000000003</ele><time>2026-04-02T08:28:02Z</time></trkpt><trkpt lat="43.497297437046655" lon="2.3985214969627555"><ele>226.00000000000003</ele><time>2026-04-02T08:28:03Z</time></trkpt><trkpt lat="43.497284638267054" lon="2.398654907390464"><ele>226.0</ele><time>2026-04-02T08:28:04Z</time></trkpt><trkpt lat="43.497270187195404" lon="2.39878303068149"><ele>226.0</ele><time>2026-04-02T08:28:05Z</time></trkpt><trkpt lat="43.497257902018575" lon="2.3989103295042145"><ele>226.4</ele><time>2026-04-02T08:28:06Z</time></trkpt><trkpt lat="43.49724549000718" lon="2.3990361905944013"><ele>226.8</ele><time>2026-04-02T08:28:07Z</time></trkpt><trkpt lat="43.49723126256301" lon="2.399163906930652"><ele>227.20000000000002</ele><time>2026-04-02T08:28:08Z</time></trkpt><trkpt lat="43.497217619740944" lon="2.399296724147156"><ele>227.60000000000002</ele><time>2026-04-02T08:28:09Z</time></trkpt><trkpt lat="43.4972012046465" lon="2.3994332419418023"><ele>228.0</ele><time>2026-04-02T08:28:10Z</time></trkpt><trkpt lat="43.497181292748344" lon="2.3995736206405653"><ele>228.2</ele><time>2026-04-02T08:28:11Z</time></trkpt><trkpt lat="43.4971551487492" lon="2.399711199487357"><ele>228.4</ele><time>2026-04-02T08:28:12Z</time></trkpt><trkpt lat="43.49712997611781" lon="2.399835607753801"><ele>228.59999999999997</ele><time>2026-04-02T08:28:13Z</time></trkpt><trkpt lat="43.49708854706529" lon="2.3999517707135585"><ele>228.79999999999998</ele><time>2026-04-02T08:28:14Z</time></trkpt><trkpt lat="43.4970365763179" lon="2.400053010230827"><ele>229.0</ele><time>2026-04-02T08:28:15Z</time></trkpt><trkpt lat="43.49695903543131" lon="2.400139863731128"><ele>229.0</ele><time>2026-04-02T08:28:16Z</time></trkpt><trkpt lat="43.49687590242382" lon="2.4002247856098453"><ele>228.99999999999997</ele><time>2026-04-02T08:28:17Z</time></trkpt><trkpt lat="43.496802833240565" lon="2.4003351186035493"><ele>228.99999999999997</ele><time>2026-04-02T08:28:18Z</time></trkpt><trkpt lat="43.49676474423304" lon="2.4004741116951807"><ele>229.0</ele><time>2026-04-02T08:28:19Z</time></trkpt><trkpt lat="43.4967735489716" lon="2.400616929036984"><ele>229.0</ele><time>2026-04-02T08:28:20Z</time></trkpt><trkpt lat="43.496818245374016" lon="2.4007393568734123"><ele>229.0</ele><time>2026-04-02T08:28:21Z</time></trkpt><trkpt lat="43.496884525450405" lon="2.4008400666613765"><ele>228.99999999999997</ele><time>2026-04-02T08:28:22Z</time></trkpt><trkpt lat="43.49696742948487" lon="2.400923765571829"><ele>228.99999999999997</ele><time>2026-04-02T08:28:23Z</time></trkpt><trkpt lat="43.49707218413826" lon="2.4009559131560008"><ele>229.0</ele><time>2026-04-02T08:28:24Z</time></trkpt><trkpt lat="43.497181806873364" lon="2.400931448364779"><ele>229.0</ele><time>2026-04-02T08:28:25Z</time></trkpt><trkpt lat="43.49727947380864" lon="2.4008650568620085"><ele>229.33333333333331</ele><time>2026-04-02T08:28:26Z</time></trkpt><trkpt lat="43.497350199116454" lon="2.400773339334781"><ele>229.66666666666666</ele><time>2026-04-02T08:28:27Z</time></trkpt><trkpt lat="43.49740117194452" lon="2.400670797405096"><ele>230.0</ele><time>2026-04-02T08:28:28Z</time></trkpt><trkpt lat="43.49745356384581" lon="2.4005918519473237"><ele>230.33333333333331</ele><time>2026-04-02T08:28:29Z</time></trkpt><trkpt lat="43.49752692532475" lon="2.400564124040296"><ele>230.66666666666666</ele><time>2026-04-02T08:28:30Z</time></trkpt><trkpt lat="43.497612764491606" lon="2.40054643920906"><ele>231.0</ele><time>2026-04-02T08:28:31Z</time></trkpt><trkpt lat="43.497684835649586" lon="2.40054425478735"><ele>231.0</ele><time>2026-04-02T08:28:32Z</time></trkpt><trkpt lat="43.4977477262556" lon="2.4005608831345224"><ele>231.00000000000003</ele><time>2026-04-02T08:28:33Z</time></trkpt><trkpt lat="43.49785386910773" lon="2.4005764940035434"><ele>231.00000000000003</ele><time>2026-04-02T08:28:35Z</time></trkpt><trkpt lat="43.49782928794597" lon="2.400416138062184"><ele>231.0</ele><time>2026-04-02T08:28:38Z</time></trkpt><trkpt lat="43.49780164120663" lon="2.4003257891118905"><ele>231.0</ele><time>2026-04-02T08:28:42Z</time></trkpt><trkpt lat="43.49771385618642" lon="2.4002295099400692"><ele>230.83333333333334</ele><time>2026-04-02T08:28:43Z</time></trkpt><trkpt lat="43.497638812205174" lon="2.400165931296824"><ele>230.66666666666669</ele><time>2026-04-02T08:28:44Z</time></trkpt><trkpt lat="43.49757256159304" lon="2.4001120025966993"><ele>230.5</ele><time>2026-04-02T08:28:45Z</time></trkpt><trkpt lat="43.49751487629133" lon="2.4000578582933088"><ele>230.33333333333334</ele><time>2026-04-02T08:28:46Z</time></trkpt><trkpt lat="43.497475778308846" lon="2.3999856044757037"><ele>230.16666666666669</ele><time>2026-04-02T08:28:47Z</time></trkpt><trkpt lat="43.49747129886805" lon="2.399831855211787"><ele>230.0</ele><time>2026-04-02T08:28:49Z</time></trkpt><trkpt lat="43.497485450701774" lon="2.3997393068892023"><ele>230.00000000000003</ele><time>2026-04-02T08:28:51Z</time></trkpt><trkpt lat="43.49750587828322" lon="2.399902425785237"><ele>230.0</ele><time>2026-04-02T08:28:55Z</time></trkpt><trkpt lat="43.49745567283026" lon="2.3999757640492088"><ele>230.0</ele><time>2026-04-02T08:33:24Z</time></trkpt><trkpt lat="43.497484960574184" lon="2.3998720375208373"><ele>230.0</ele><time>2026-04-02T08:33:28Z</time></trkpt><trkpt lat="43.49748680397721" lon="2.399756953963829"><ele>230.00000000000003</ele><time>2026-04-02T08:33:31Z</time></trkpt><trkpt lat="43.497409786244745" lon="2.3997221866498575"><ele>230.0</ele><time>2026-04-02T08:33:34Z</time></trkpt><trkpt lat="43.497343067920326" lon="2.399774925640828"><ele>230.0</ele><time>2026-04-02T08:33:38Z</time></trkpt><trkpt lat="43.49731604973569" lon="2.3998561502099225"><ele>230.0</ele><time>2026-04-02T08:38:09Z</time></trkpt><trkpt lat="43.49740620257332" lon="2.399996780477723"><ele>230.0</ele><time>2026-04-02T08:38:12Z</time></trkpt><trkpt lat="43.4974660826183" lon="2.400047585312689"><ele>230.0</ele><time>2026-04-02T08:38:13Z</time></trkpt><trkpt lat="43.49751918487552" lon="2.400108548375919"><ele>230.0</ele><time>2026-04-02T08:38:14Z</time></trkpt><trkpt lat="43.497609038177735" lon="2.400195983982349"><ele>230.00000000000003</ele><time>2026-04-02T08:38:16Z</time></trkpt><trkpt lat="43.497703973301874" lon="2.4002778920680132"><ele>230.0</ele><time>2026-04-02T08:38:18Z</time></trkpt><trkpt lat="43.4977721894158" lon="2.4003428295072213"><ele>230.0</ele><time>2026-04-02T08:38:19Z</time></trkpt><trkpt lat="43.497790104653426" lon="2.400430799716728"><ele>230.0</ele><time>2026-04-02T08:38:22Z</time></trkpt><trkpt lat="43.4977319855865" lon="2.400521938085851"><ele>230.00000000000003</ele><time>2026-04-02T08:38:25Z</time></trkpt><trkpt lat="43.49764468457143" lon="2.400528883810795"><ele>230.0</ele><time>2026-04-02T08:38:27Z</time></trkpt><trkpt lat="43.49756287182004" lon="2.4004978470122595"><ele>230.00000000000003</ele><time>2026-04-02T08:38:29Z</time></trkpt><trkpt lat="43.49748195246756" lon="2.4004554297980403"><ele>230.0</ele><time>2026-04-02T08:38:31Z</time></trkpt><trkpt lat="43.49743338783013" lon="2.400396942239936"><ele>230.0</ele><time>2026-04-02T08:38:32Z</time></trkpt><trkpt lat="43.49739249866071" lon="2.4003085837035476"><ele>230.0</ele><time>2026-04-02T08:38:33Z</time></trkpt><trkpt lat="43.4973465598986" lon="2.4002002621481706"><ele>230.00000000000003</ele><time>2026-04-02T08:38:34Z</time></trkpt><trkpt lat="43.49729125654836" lon="2.400083454620357"><ele>230.0</ele><time>2026-04-02T08:38:35Z</time></trkpt><trkpt lat="43.49723840772477" lon="2.3999564385445207"><ele>230.0</ele><time>2026-04-02T08:38:36Z</time></trkpt><trkpt lat="43.497198103962006" lon="2.3998116705465073"><ele>230.0</ele><time>2026-04-02T08:38:37Z</time></trkpt><trkpt lat="43.49718264585617" lon="2.399646770273626"><ele>230.0</ele><time>2026-04-02T08:38:38Z</time></trkpt><trkpt lat="43.497214677510634" lon="2.3994870906765895"><ele>230.0</ele><time>2026-04-02T08:38:39Z</time></trkpt><trkpt lat="43.497234135685154" lon="2.3993343879745654"><ele>229.5</ele><time>2026-04-02T08:38:40Z</time></trkpt><trkpt lat="43.49725407208254" lon="2.39917529443558"><ele>229.0</ele><time>2026-04-02T08:38:41Z</time></trkpt><trkpt lat="43.497272681970294" lon="2.3990182826420727"><ele>228.5</ele><time>2026-04-02T08:38:42Z</time></trkpt><trkpt lat="43.49729161016763" lon="2.3988624911778444"><ele>228.0</ele><time>2026-04-02T08:38:43Z</time></trkpt><trkpt lat="43.49730804287312" lon="2.3987146143500846"><ele>227.60000000000002</ele><time>2026-04-02T08:38:44Z</time></trkpt><trkpt lat="43.4973199841819" lon="2.3985851321498743"><ele>227.20000000000002</ele><time>2026-04-02T08:38:45Z</time></trkpt><trkpt lat="43.49732941964375" lon="2.3984610759614795"><ele>226.8</ele><time>2026-04-02T08:38:46Z</time></trkpt><trkpt lat="43.49734066599238" lon="2.398333282837905"><ele>226.4</ele><time>2026-04-02T08:38:47Z</time></trkpt><trkpt lat="43.49735329489053" lon="2.3982040307594317"><ele>226.0</ele><time>2026-04-02T08:38:48Z</time></trkpt><trkpt lat="43.49736429480529" lon="2.398076427465697"><ele>225.60000000000002</ele><time>2026-04-02T08:38:49Z</time></trkpt><trkpt lat="43.497374520775956" lon="2.397952267229145"><ele>225.20000000000002</ele><time>2026-04-02T08:38:50Z</time></trkpt><trkpt lat="43.4973880042497" lon="2.3978316848461665"><ele>224.79999999999998</ele><time>2026-04-02T08:38:51Z</time></trkpt><trkpt lat="43.49740325246412" lon="2.397705197418756"><ele>224.39999999999998</ele><time>2026-04-02T08:38:52Z</time></trkpt><trkpt lat="43.497419003183644" lon="2.3975749365223087"><ele>224.0</ele><time>2026-04-02T08:38:53Z</time></trkpt><trkpt lat="43.497432697370925" lon="2.3974481141544346"><ele>224.00000000000003</ele><time>2026-04-02T08:38:54Z</time></trkpt><trkpt lat="43.49744445373993" lon="2.397338629049457"><ele>224.0</ele><time>2026-04-02T08:38:55Z</time></trkpt><trkpt lat="43.497451022593744" lon="2.397235857991164"><ele>224.0</ele><time>2026-04-02T08:38:56Z</time></trkpt><trkpt lat="43.49745739804155" lon="2.3971451147408778"><ele>224.0</ele><time>2026-04-02T08:38:57Z</time></trkpt><trkpt lat="43.49747923541487" lon="2.396970198163985"><ele>224.00000000000003</ele><time>2026-04-02T08:38:59Z</time></trkpt><trkpt lat="43.497487463096064" lon="2.396850368783908"><ele>224.0</ele><time>2026-04-02T08:39:00Z</time></trkpt><trkpt lat="43.49749650629449" lon="2.396716055831841"><ele>224.39999999999998</ele><time>2026-04-02T08:39:01Z</time></trkpt><trkpt lat="43.497511379406085" lon="2.3965880533771635"><ele>224.79999999999998</ele><time>2026-04-02T08:39:02Z</time></trkpt><trkpt lat="43.497528889740664" lon="2.3964784498926943"><ele>225.20000000000002</ele><time>2026-04-02T08:39:03Z</time></trkpt><trkpt lat="43.49754108212023" lon="2.3963883040430813"><ele>225.60000000000002</ele><time>2026-04-02T08:39:04Z</time></trkpt><trkpt lat="43.49755997985173" lon="2.396223297258843"><ele>226.0</ele><time>2026-04-02T08:39:06Z</time></trkpt><trkpt lat="43.49757466679858" lon="2.3960615010855033"><ele>226.33333333333331</ele><time>2026-04-02T08:39:08Z</time></trkpt><trkpt lat="43.49759340449013" lon="2.3959039085892613"><ele>226.66666666666666</ele><time>2026-04-02T08:39:10Z</time></trkpt><trkpt lat="43.49760555004386" lon="2.395778969414146"><ele>227.0</ele><time>2026-04-02T08:39:12Z</time></trkpt><trkpt lat="43.49761845153769" lon="2.3956699815349847"><ele>227.33333333333331</ele><time>2026-04-02T08:39:14Z</time></trkpt><trkpt lat="43.497633850545995" lon="2.3955758082926826"><ele>227.66666666666666</ele><time>2026-04-02T08:39:16Z</time></trkpt><trkpt lat="43.49764240192832" lon="2.395487465437725"><ele>228.0</ele><time>2026-04-02T08:39:18Z</time></trkpt><trkpt lat="43.497650172360274" lon="2.3953877565843036"><ele>228.0</ele><time>2026-04-02T08:39:20Z</time></trkpt><trkpt lat="43.49766374811327" lon="2.395242586722874"><ele>228.0</ele><time>2026-04-02T08:39:22Z</time></trkpt><trkpt lat="43.497679911639864" lon="2.395117561024732"><ele>228.0</ele><time>2026-04-02T08:39:24Z</time></trkpt><trkpt lat="43.49769502991126" lon="2.3950122408398067"><ele>228.0</ele><time>2026-04-02T08:39:26Z</time></trkpt><trkpt lat="43.497710343337346" lon="2.3948909458965995"><ele>228.0</ele><time>2026-04-02T08:39:28Z</time></trkpt><trkpt lat="43.49772059728952" lon="2.3947664810847296"><ele>228.0</ele><time>2026-04-02T08:39:30Z</time></trkpt><trkpt lat="43.497736344714056" lon="2.3946073675709156"><ele>228.0</ele><time>2026-04-02T08:39:32Z</time></trkpt><trkpt lat="43.49774668472929" lon="2.394515449790825"><ele>228.0</ele><time>2026-04-02T08:39:33Z</time></trkpt><trkpt lat="43.497760419299844" lon="2.3944187660934912"><ele>228.0</ele><time>2026-04-02T08:39:34Z</time></trkpt><trkpt lat="43.49777253134961" lon="2.3943188316230684"><ele>228.0</ele><time>2026-04-02T08:39:35Z</time></trkpt><trkpt lat="43.49778240263609" lon="2.3942174405209444"><ele>228.0</ele><time>2026-04-02T08:39:36Z</time></trkpt><trkpt lat="43.49779020182762" lon="2.3941181987854425"><ele>228.0</ele><time>2026-04-02T08:39:37Z</time></trkpt><trkpt lat="43.49779980903385" lon="2.3940176273401685"><ele>228.0</ele><time>2026-04-02T08:39:38Z</time></trkpt><trkpt lat="43.49781093346611" lon="2.393908836251958"><ele>228.0</ele><time>2026-04-02T08:39:39Z</time></trkpt><trkpt lat="43.49782049518671" lon="2.393793230296438"><ele>228.0</ele><time>2026-04-02T08:39:40Z</time></trkpt><trkpt lat="43.497830106001366" lon="2.3936720052934413"><ele>228.0</ele><time>2026-04-02T08:39:41Z</time></trkpt><trkpt lat="43.49784316465819" lon="2.3935431403193954"><ele>228.0</ele><time>2026-04-02T08:39:42Z</time></trkpt><trkpt lat="43.49785500095651" lon="2.393409547532529"><ele>227.8</ele><time>2026-04-02T08:39:43Z</time></trkpt><trkpt lat="43.49787073485122" lon="2.39327761466668"><ele>227.60000000000002</ele><time>2026-04-02T08:39:44Z</time></trkpt><trkpt lat="43.49788493554517" lon="2.3931423649383565"><ele>227.39999999999998</ele><time>2026-04-02T08:39:45Z</time></trkpt><trkpt lat="43.497899733847696" lon="2.3930061858145515"><ele>227.2</ele><time>2026-04-02T08:39:46Z</time></trkpt><trkpt lat="43.497913869252244" lon="2.3928625166078934"><ele>227.0</ele><time>2026-04-02T08:39:47Z</time></trkpt><trkpt lat="43.497928805466636" lon="2.39271482402396"><ele>226.0</ele><time>2026-04-02T08:39:48Z</time></trkpt><trkpt lat="43.49794598505666" lon="2.392551245843499"><ele>225.0</ele><time>2026-04-02T08:39:49Z</time></trkpt><trkpt lat="43.49796302694344" lon="2.392387175537751"><ele>224.0</ele><time>2026-04-02T08:39:50Z</time></trkpt><trkpt lat="43.497974179996405" lon="2.392222868308174"><ele>223.0</ele><time>2026-04-02T08:39:51Z</time></trkpt><trkpt lat="43.49799225224192" lon="2.39206361144972"><ele>223.0</ele><time>2026-04-02T08:39:52Z</time></trkpt><trkpt lat="43.49801226924641" lon="2.391894452134784"><ele>223.0</ele><time>2026-04-02T08:39:53Z</time></trkpt><trkpt lat="43.498031454766625" lon="2.3917132043108644"><ele>223.0</ele><time>2026-04-02T08:39:54Z</time></trkpt><trkpt lat="43.49805338100248" lon="2.3915265340449183"><ele>223.0</ele><time>2026-04-02T08:39:55Z</time></trkpt><trkpt lat="43.498074534288364" lon="2.391326501446074"><ele>223.25</ele><time>2026-04-02T08:39:56Z</time></trkpt><trkpt lat="43.49809796386481" lon="2.391155309196794"><ele>223.5</ele><time>2026-04-02T08:39:57Z</time></trkpt><trkpt lat="43.49813415380925" lon="2.3909999011998533"><ele>223.75</ele><time>2026-04-02T08:39:58Z</time></trkpt><trkpt lat="43.498167244969984" lon="2.390880573699833"><ele>224.0</ele><time>2026-04-02T08:39:59Z</time></trkpt><trkpt lat="43.498407365260945" lon="2.3907780820696876"><ele>224.0</ele><time>2026-04-02T08:40:01Z</time></trkpt><trkpt lat="43.49853733563871" lon="2.3908017764344462"><ele>224.0</ele><time>2026-04-02T08:40:02Z</time></trkpt><trkpt lat="43.49868022220128" lon="2.390836853903744"><ele>224.0</ele><time>2026-04-02T08:40:03Z</time></trkpt><trkpt lat="43.49884365012755" lon="2.390863130380116"><ele>224.0</ele><time>2026-04-02T08:40:04Z</time></trkpt><trkpt lat="43.499018395726964" lon="2.3909405051525994"><ele>223.66666666666669</ele><time>2026-04-02T08:40:05Z</time></trkpt><trkpt lat="43.49921682987348" lon="2.3910220527873034"><ele>223.33333333333331</ele><time>2026-04-02T08:40:06Z</time></trkpt><trkpt lat="43.49942386646502" lon="2.3911103006422656"><ele>223.0</ele><time>2026-04-02T08:40:07Z</time></trkpt><trkpt lat="43.49962310150077" lon="2.3911977111304634"><ele>224.66666666666666</ele><time>2026-04-02T08:40:08Z</time></trkpt><trkpt lat="43.49980826641978" lon="2.3912813156705677"><ele>226.33333333333331</ele><time>2026-04-02T08:40:09Z</time></trkpt><trkpt lat="43.49999735170671" lon="2.3913776560699143"><ele>228.0</ele><time>2026-04-02T08:40:10Z</time></trkpt><trkpt lat="43.500194278509845" lon="2.3915018575141196"><ele>228.33333333333331</ele><time>2026-04-02T08:40:11Z</time></trkpt><trkpt lat="43.50038747545513" lon="2.391654463618892"><ele>228.66666666666666</ele><time>2026-04-02T08:40:12Z</time></trkpt><trkpt lat="43.50057106929709" lon="2.391829863954281"><ele>229.0</ele><time>2026-04-02T08:40:13Z</time></trkpt><trkpt lat="43.500745304836435" lon="2.3920236671866233"><ele>229.0</ele><time>2026-04-02T08:40:14Z</time></trkpt><trkpt lat="43.500912242714286" lon="2.392238851565701"><ele>229.0</ele><time>2026-04-02T08:40:15Z</time></trkpt><trkpt lat="43.50105094867675" lon="2.3925090869848953"><ele>229.0</ele><time>2026-04-02T08:40:16Z</time></trkpt><trkpt lat="43.50118578878635" lon="2.392782696122357"><ele>229.0</ele><time>2026-04-02T08:40:17Z</time></trkpt><trkpt lat="43.501320339864535" lon="2.393065602381367"><ele>228.5</ele><time>2026-04-02T08:40:18Z</time></trkpt><trkpt lat="43.50145960243692" lon="2.3933420064557573"><ele>228.0</ele><time>2026-04-02T08:40:19Z</time></trkpt><trkpt lat="43.50158970813071" lon="2.3936276674415624"><ele>228.5</ele><time>2026-04-02T08:40:20Z</time></trkpt><trkpt lat="43.501737164502316" lon="2.393898762749769"><ele>229.0</ele><time>2026-04-02T08:40:21Z</time></trkpt><trkpt lat="43.50190918300974" lon="2.3941518056904223"><ele>228.0</ele><time>2026-04-02T08:40:22Z</time></trkpt><trkpt lat="43.50209611963747" lon="2.3943782837455"><ele>227.0</ele><time>2026-04-02T08:40:23Z</time></trkpt><trkpt lat="43.50229169694324" lon="2.3945711975109236"><ele>227.0</ele><time>2026-04-02T08:40:24Z</time></trkpt><trkpt lat="43.50248724449852" lon="2.3947287084827233"><ele>227.0</ele><time>2026-04-02T08:40:25Z</time></trkpt><trkpt lat="43.50268134325328" lon="2.3948603776275124"><ele>227.0</ele><time>2026-04-02T08:40:26Z</time></trkpt><trkpt lat="43.50286101763962" lon="2.39496700880997"><ele>226.66666666666669</ele><time>2026-04-02T08:40:27Z</time></trkpt><trkpt lat="43.50302344599247" lon="2.395059473093341"><ele>226.33333333333331</ele><time>2026-04-02T08:40:28Z</time></trkpt><trkpt lat="43.503165864320906" lon="2.3951439050288896"><ele>226.0</ele><time>2026-04-02T08:40:29Z</time></trkpt><trkpt lat="43.503288406102435" lon="2.395218060449738"><ele>226.0</ele><time>2026-04-02T08:40:30Z</time></trkpt><trkpt lat="43.50340298001276" lon="2.3952907048292094"><ele>226.0</ele><time>2026-04-02T08:40:31Z</time></trkpt><trkpt lat="43.50351161184712" lon="2.3953356573287006"><ele>226.0</ele><time>2026-04-02T08:40:32Z</time></trkpt><trkpt lat="43.50362119984384" lon="2.395331769092821"><ele>226.0</ele><time>2026-04-02T08:40:33Z</time></trkpt><trkpt lat="43.50372890668388" lon="2.395273928672449"><ele>226.75</ele><time>2026-04-02T08:40:34Z</time></trkpt><trkpt lat="43.50384094393586" lon="2.3951913422074727"><ele>227.5</ele><time>2026-04-02T08:40:35Z</time></trkpt><trkpt lat="43.50395786049995" lon="2.3951171489597067"><ele>228.25</ele><time>2026-04-02T08:40:36Z</time></trkpt><trkpt lat="43.50408774790817" lon="2.3950837401227125"><ele>229.0</ele><time>2026-04-02T08:40:37Z</time></trkpt><trkpt lat="43.50421670807171" lon="2.3951348714693594"><ele>229.0</ele><time>2026-04-02T08:40:38Z</time></trkpt><trkpt lat="43.50436079303627" lon="2.3951999535638"><ele>229.0</ele><time>2026-04-02T08:40:39Z</time></trkpt><trkpt lat="43.50453460220114" lon="2.3952809622563453"><ele>229.0</ele><time>2026-04-02T08:40:40Z</time></trkpt><trkpt lat="43.504726304549344" lon="2.3953693971160437"><ele>230.0</ele><time>2026-04-02T08:40:41Z</time></trkpt><trkpt lat="43.50492576226625" lon="2.395461409643775"><ele>231.0</ele><time>2026-04-02T08:40:42Z</time></trkpt><trkpt lat="43.50511068774368" lon="2.3955292555276815"><ele>232.0</ele><time>2026-04-02T08:40:43Z</time></trkpt><trkpt lat="43.505265689782526" lon="2.3956167845062857"><ele>234.0</ele><time>2026-04-02T08:40:44Z</time></trkpt><trkpt lat="43.505412507728245" lon="2.3956927392834237"><ele>236.0</ele><time>2026-04-02T08:40:45Z</time></trkpt><trkpt lat="43.50555335348355" lon="2.3957670321912095"><ele>238.0</ele><time>2026-04-02T08:40:46Z</time></trkpt><trkpt lat="43.5056805744792" lon="2.3958436925976376"><ele>240.0</ele><time>2026-04-02T08:40:47Z</time></trkpt><trkpt lat="43.505798856683356" lon="2.3959206105261135"><ele>240.0</ele><time>2026-04-02T08:40:48Z</time></trkpt><trkpt lat="43.505913787035276" lon="2.395993572533439"><ele>240.0</ele><time>2026-04-02T08:40:49Z</time></trkpt><trkpt lat="43.50602576472776" lon="2.3960638673420447"><ele>240.0</ele><time>2026-04-02T08:40:50Z</time></trkpt><trkpt lat="43.506125332403144" lon="2.3961309020021027"><ele>240.0</ele><time>2026-04-02T08:40:51Z</time></trkpt><trkpt lat="43.50620993054508" lon="2.3961982131896664"><ele>240.16666666666666</ele><time>2026-04-02T08:40:52Z</time></trkpt><trkpt lat="43.50629691265377" lon="2.396256181977382"><ele>240.33333333333331</ele><time>2026-04-02T08:40:53Z</time></trkpt><trkpt lat="43.506374447954435" lon="2.3963026462636607"><ele>240.5</ele><time>2026-04-02T08:40:54Z</time></trkpt><trkpt lat="43.50645284972643" lon="2.3963440062092944"><ele>240.66666666666666</ele><time>2026-04-02T08:40:55Z</time></trkpt><trkpt lat="43.50653539883401" lon="2.3963847185092932"><ele>240.83333333333331</ele><time>2026-04-02T08:40:56Z</time></trkpt><trkpt lat="43.506615009643454" lon="2.396408922625416"><ele>241.0</ele><time>2026-04-02T08:40:57Z</time></trkpt><trkpt lat="43.50669118332808" lon="2.396435118589973"><ele>241.33333333333331</ele><time>2026-04-02T08:40:58Z</time></trkpt><trkpt lat="43.50679472603919" lon="2.396468316934025"><ele>241.66666666666666</ele><time>2026-04-02T08:41:00Z</time></trkpt><trkpt lat="43.506867600187675" lon="2.396574133665345"><ele>242.0</ele><time>2026-04-02T08:41:02Z</time></trkpt><trkpt lat="43.50691648300671" lon="2.396631059074313"><ele>242.33333333333331</ele><time>2026-04-02T08:41:03Z</time></trkpt><trkpt lat="43.50698509634316" lon="2.3966592869893146"><ele>242.66666666666666</ele><time>2026-04-02T08:41:04Z</time></trkpt><trkpt lat="43.50708565163165" lon="2.396640848024895"><ele>243.0</ele><time>2026-04-02T08:41:05Z</time></trkpt><trkpt lat="43.507215234939515" lon="2.3966148213361027"><ele>243.0</ele><time>2026-04-02T08:41:06Z</time></trkpt><trkpt lat="43.50735088032039" lon="2.3966020745451253"><ele>243.0</ele><time>2026-04-02T08:41:07Z</time></trkpt><trkpt lat="43.50747656334042" lon="2.396588562609831"><ele>243.0</ele><time>2026-04-02T08:41:08Z</time></trkpt><trkpt lat="43.507608214438335" lon="2.3965761997768635"><ele>243.0</ele><time>2026-04-02T08:41:09Z</time></trkpt><trkpt lat="43.507760658663884" lon="2.396565265466126"><ele>243.0</ele><time>2026-04-02T08:41:10Z</time></trkpt><trkpt lat="43.50789755594143" lon="2.3965541604709837"><ele>243.0</ele><time>2026-04-02T08:41:11Z</time></trkpt><trkpt lat="43.5080160037213" lon="2.396536249924783"><ele>243.0</ele><time>2026-04-02T08:41:12Z</time></trkpt><trkpt lat="43.508122839870076" lon="2.396518404302009"><ele>243.0</ele><time>2026-04-02T08:41:13Z</time></trkpt><trkpt lat="43.50822426892692" lon="2.3965049497600046"><ele>243.75</ele><time>2026-04-02T08:41:14Z</time></trkpt><trkpt lat="43.50832036857922" lon="2.396501532123209"><ele>244.5</ele><time>2026-04-02T08:41:15Z</time></trkpt><trkpt lat="43.50839426567955" lon="2.396527435581825"><ele>245.25</ele><time>2026-04-02T08:41:16Z</time></trkpt><trkpt lat="43.508422921086634" lon="2.3968088422451457"><ele>246.0</ele><time>2026-04-02T08:41:18Z</time></trkpt><trkpt lat="43.50844504475907" lon="2.3969879835579126"><ele>248.0</ele><time>2026-04-02T08:41:19Z</time></trkpt><trkpt lat="43.50847154631683" lon="2.3972025729591824"><ele>250.0</ele><time>2026-04-02T08:41:20Z</time></trkpt><trkpt lat="43.508514562608944" lon="2.3974397180948235"><ele>252.0</ele><time>2026-04-02T08:41:21Z</time></trkpt><trkpt lat="43.508515718608024" lon="2.3976725195468984"><ele>252.0</ele><time>2026-04-02T08:41:22Z</time></trkpt><trkpt lat="43.508499212538034" lon="2.3979213561681916"><ele>252.0</ele><time>2026-04-02T08:41:23Z</time></trkpt><trkpt lat="43.508465133436665" lon="2.3981802154783094"><ele>252.0</ele><time>2026-04-02T08:41:24Z</time></trkpt><trkpt lat="43.50842490622889" lon="2.3984364211425224"><ele>253.66666666666669</ele><time>2026-04-02T08:41:25Z</time></trkpt><trkpt lat="43.508389154741515" lon="2.3987177057408045"><ele>255.33333333333334</ele><time>2026-04-02T08:41:26Z</time></trkpt><trkpt lat="43.50835660033904" lon="2.3990037191863616"><ele>257.0</ele><time>2026-04-02T08:41:27Z</time></trkpt><trkpt lat="43.50832148584846" lon="2.399271303339179"><ele>258.6666666666667</ele><time>2026-04-02T08:41:28Z</time></trkpt><trkpt lat="43.50827570065977" lon="2.399532495535294"><ele>260.3333333333333</ele><time>2026-04-02T08:41:29Z</time></trkpt><trkpt lat="43.50821186386118" lon="2.3997926207179776"><ele>262.0</ele><time>2026-04-02T08:41:30Z</time></trkpt><trkpt lat="43.50812183197575" lon="2.400061444540518"><ele>262.66666666666663</ele><time>2026-04-02T08:41:31Z</time></trkpt><trkpt lat="43.507996856871536" lon="2.400262916392292"><ele>263.3333333333333</ele><time>2026-04-02T08:41:32Z</time></trkpt><trkpt lat="43.507904522354465" lon="2.4004529533154995"><ele>264.0</ele><time>2026-04-02T08:41:33Z</time></trkpt><trkpt lat="43.50782210641447" lon="2.400603771894615"><ele>264.0</ele><time>2026-04-02T08:41:34Z</time></trkpt><trkpt lat="43.50779764818009" lon="2.4007733892785326"><ele>264.0</ele><time>2026-04-02T08:41:35Z</time></trkpt><trkpt lat="43.5078430247679" lon="2.4009160661060105"><ele>264.0</ele><time>2026-04-02T08:41:36Z</time></trkpt><trkpt lat="43.50791824275815" lon="2.4010149742444056"><ele>264.0</ele><time>2026-04-02T08:41:37Z</time></trkpt><trkpt lat="43.50797691365144" lon="2.4010863323383336"><ele>264.0</ele><time>2026-04-02T08:41:38Z</time></trkpt><trkpt lat="43.5080244590829" lon="2.40115984041985"><ele>267.6666666666667</ele><time>2026-04-02T08:41:40Z</time></trkpt><trkpt lat="43.508197628021385" lon="2.401003078465717"><ele>271.33333333333337</ele><time>2026-04-02T08:41:42Z</time></trkpt><trkpt lat="43.508316439270274" lon="2.400896681236347"><ele>275.0</ele><time>2026-04-02T08:41:43Z</time></trkpt><trkpt lat="43.508466330588966" lon="2.4008247454493894"><ele>275.0</ele><time>2026-04-02T08:41:44Z</time></trkpt><trkpt lat="43.50863919106055" lon="2.4007588549898933"><ele>275.0</ele><time>2026-04-02T08:41:45Z</time></trkpt><trkpt lat="43.50881238186357" lon="2.400677797323218"><ele>275.0</ele><time>2026-04-02T08:41:46Z</time></trkpt><trkpt lat="43.50896542176907" lon="2.4005767814298196"><ele>276.6666666666667</ele><time>2026-04-02T08:41:47Z</time></trkpt><trkpt lat="43.50910160719733" lon="2.400417929696953"><ele>278.3333333333333</ele><time>2026-04-02T08:41:48Z</time></trkpt><trkpt lat="43.509210412162965" lon="2.4001961492135457"><ele>280.0</ele><time>2026-04-02T08:41:49Z</time></trkpt><trkpt lat="43.509290318235664" lon="2.399952743377127"><ele>280.0</ele><time>2026-04-02T08:41:50Z</time></trkpt><trkpt lat="43.50935904074817" lon="2.399729260698099"><ele>280.0</ele><time>2026-04-02T08:41:51Z</time></trkpt><trkpt lat="43.50944754555443" lon="2.399572451387662"><ele>280.0</ele><time>2026-04-02T08:41:52Z</time></trkpt><trkpt lat="43.50954305831106" lon="2.399467125510413"><ele>280.0</ele><time>2026-04-02T08:41:53Z</time></trkpt><trkpt lat="43.509662453881724" lon="2.3994525399650404"><ele>279.0</ele><time>2026-04-02T08:41:54Z</time></trkpt><trkpt lat="43.50977363266024" lon="2.399502787214347"><ele>278.0</ele><time>2026-04-02T08:41:55Z</time></trkpt><trkpt lat="43.50984287010916" lon="2.399636630742183"><ele>277.0</ele><time>2026-04-02T08:41:56Z</time></trkpt><trkpt lat="43.50990292748258" lon="2.399798543395625"><ele>276.0</ele><time>2026-04-02T08:41:57Z</time></trkpt><trkpt lat="43.50994466385637" lon="2.400010039763519"><ele>280.0</ele><time>2026-04-02T08:41:58Z</time></trkpt><trkpt lat="43.5099534119292" lon="2.4002593122861686"><ele>284.0</ele><time>2026-04-02T08:41:59Z</time></trkpt><trkpt lat="43.50997090867806" lon="2.4005389878137744"><ele>288.0</ele><time>2026-04-02T08:42:00Z</time></trkpt><trkpt lat="43.50996712003367" lon="2.4008490964746945"><ele>289.6666666666667</ele><time>2026-04-02T08:42:01Z</time></trkpt><trkpt lat="43.509969150780684" lon="2.401167066073401"><ele>291.33333333333337</ele><time>2026-04-02T08:42:02Z</time></trkpt><trkpt lat="43.509994716871965" lon="2.4014625110406405"><ele>293.0</ele><time>2026-04-02T08:42:03Z</time></trkpt><trkpt lat="43.51006231251056" lon="2.4017706286821943"><ele>294.6666666666667</ele><time>2026-04-02T08:42:04Z</time></trkpt><trkpt lat="43.51014613424719" lon="2.4020504367638282"><ele>296.3333333333333</ele><time>2026-04-02T08:42:05Z</time></trkpt><trkpt lat="43.51021333823413" lon="2.4022636544009655"><ele>298.0</ele><time>2026-04-02T08:42:06Z</time></trkpt><trkpt lat="43.51027083817618" lon="2.4024324584002876"><ele>299.5</ele><time>2026-04-02T08:42:07Z</time></trkpt><trkpt lat="43.51035883054879" lon="2.402566475617356"><ele>301.0</ele><time>2026-04-02T08:42:08Z</time></trkpt><trkpt lat="43.5104988825707" lon="2.402643243374686"><ele>302.5</ele><time>2026-04-02T08:42:09Z</time></trkpt><trkpt lat="43.510652668531115" lon="2.4026336924437905"><ele>304.0</ele><time>2026-04-02T08:42:10Z</time></trkpt><trkpt lat="43.510804335220435" lon="2.4025474645877947"><ele>304.0</ele><time>2026-04-02T08:42:11Z</time></trkpt><trkpt lat="43.51095321895197" lon="2.402402362968522"><ele>304.0</ele><time>2026-04-02T08:42:12Z</time></trkpt><trkpt lat="43.511106159374044" lon="2.402229780727904"><ele>304.0</ele><time>2026-04-02T08:42:13Z</time></trkpt><trkpt lat="43.51129125880397" lon="2.4021193078767515"><ele>302.3333333333333</ele><time>2026-04-02T08:42:14Z</time></trkpt><trkpt lat="43.51148669802125" lon="2.402067376540748"><ele>300.6666666666667</ele><time>2026-04-02T08:42:15Z</time></trkpt><trkpt lat="43.51166768953431" lon="2.402078562480616"><ele>299.0</ele><time>2026-04-02T08:42:16Z</time></trkpt><trkpt lat="43.51184469539307" lon="2.4021330245682817"><ele>299.5</ele><time>2026-04-02T08:42:17Z</time></trkpt><trkpt lat="43.5119942175113" lon="2.402199066809502"><ele>300.0</ele><time>2026-04-02T08:42:18Z</time></trkpt><trkpt lat="43.5120673911341" lon="2.402355186640447"><ele>300.5</ele><time>2026-04-02T08:42:19Z</time></trkpt><trkpt lat="43.51209955980696" lon="2.4025112169362735"><ele>301.0</ele><time>2026-04-02T08:42:20Z</time></trkpt><trkpt lat="43.51208220754638" lon="2.402702306453683"><ele>304.66666666666663</ele><time>2026-04-02T08:42:21Z</time></trkpt><trkpt lat="43.51201587320435" lon="2.402917001869604"><ele>308.3333333333333</ele><time>2026-04-02T08:42:22Z</time></trkpt><trkpt lat="43.5119476036199" lon="2.403161781766689"><ele>312.0</ele><time>2026-04-02T08:42:23Z</time></trkpt><trkpt lat="43.511881424737034" lon="2.4034264249106285"><ele>313.6666666666667</ele><time>2026-04-02T08:42:24Z</time></trkpt><trkpt lat="43.5117989632419" lon="2.4036971955565223"><ele>315.33333333333337</ele><time>2026-04-02T08:42:25Z</time></trkpt><trkpt lat="43.51172819491541" lon="2.40395572287457"><ele>317.0</ele><time>2026-04-02T08:42:26Z</time></trkpt><trkpt lat="43.51165834461084" lon="2.404203699576719"><ele>317.0</ele><time>2026-04-02T08:42:27Z</time></trkpt><trkpt lat="43.51153994899787" lon="2.4044268034467002"><ele>317.0</ele><time>2026-04-02T08:42:28Z</time></trkpt><trkpt lat="43.51139223015953" lon="2.4046564301956366"><ele>317.0</ele><time>2026-04-02T08:42:29Z</time></trkpt><trkpt lat="43.51122528942503" lon="2.4048893393711492"><ele>320.0</ele><time>2026-04-02T08:42:30Z</time></trkpt><trkpt lat="43.51105600414368" lon="2.4051351855538803"><ele>323.0</ele><time>2026-04-02T08:42:31Z</time></trkpt><trkpt lat="43.51088494093897" lon="2.405354526390858"><ele>323.0</ele><time>2026-04-02T08:42:32Z</time></trkpt><trkpt lat="43.51073826308808" lon="2.4055603623947177"><ele>323.0</ele><time>2026-04-02T08:42:33Z</time></trkpt><trkpt lat="43.51060582623817" lon="2.405768677095167"><ele>323.0</ele><time>2026-04-02T08:42:34Z</time></trkpt><trkpt lat="43.510500060440556" lon="2.4059840650642985"><ele>323.0</ele><time>2026-04-02T08:42:35Z</time></trkpt><trkpt lat="43.51043272698239" lon="2.406189592593829"><ele>323.0</ele><time>2026-04-02T08:42:36Z</time></trkpt><trkpt lat="43.51041350580287" lon="2.4063987171188055"><ele>323.0</ele><time>2026-04-02T08:42:37Z</time></trkpt><trkpt lat="43.510450580498784" lon="2.406614951739103"><ele>324.0</ele><time>2026-04-02T08:42:38Z</time></trkpt><trkpt lat="43.510512597559504" lon="2.406847548466712"><ele>325.0</ele><time>2026-04-02T08:42:39Z</time></trkpt><trkpt lat="43.51052383964853" lon="2.407113264146151"><ele>326.0</ele><time>2026-04-02T08:42:40Z</time></trkpt><trkpt lat="43.5105101049353" lon="2.407386845055712"><ele>327.0</ele><time>2026-04-02T08:42:41Z</time></trkpt><trkpt lat="43.510497829961814" lon="2.407658404083515"><ele>328.0</ele><time>2026-04-02T08:42:42Z</time></trkpt><trkpt lat="43.51051788905536" lon="2.407891465390787"><ele>329.0</ele><time>2026-04-02T08:42:43Z</time></trkpt><trkpt lat="43.5105788129385" lon="2.4081199818142585"><ele>332.0</ele><time>2026-04-02T08:42:44Z</time></trkpt><trkpt lat="43.51070132495183" lon="2.408312037122042"><ele>335.0</ele><time>2026-04-02T08:42:45Z</time></trkpt><trkpt lat="43.510821206932974" lon="2.4084960125119155"><ele>338.0</ele><time>2026-04-02T08:42:46Z</time></trkpt><trkpt lat="43.51082073033221" lon="2.40871261920231"><ele>339.6666666666667</ele><time>2026-04-02T08:42:47Z</time></trkpt><trkpt lat="43.51082637629331" lon="2.408975862653987"><ele>341.3333333333333</ele><time>2026-04-02T08:42:48Z</time></trkpt><trkpt lat="43.51087516231436" lon="2.4092302225157622"><ele>343.0</ele><time>2026-04-02T08:42:49Z</time></trkpt><trkpt lat="43.51097339232235" lon="2.409485600036393"><ele>344.66666666666663</ele><time>2026-04-02T08:42:50Z</time></trkpt><trkpt lat="43.51109222173801" lon="2.4097067557102876"><ele>346.3333333333333</ele><time>2026-04-02T08:42:51Z</time></trkpt><trkpt lat="43.51113834124393" lon="2.4099611274067887"><ele>348.0</ele><time>2026-04-02T08:42:52Z</time></trkpt><trkpt lat="43.5111810221803" lon="2.4102685299632602"><ele>349.5</ele><time>2026-04-02T08:42:53Z</time></trkpt><trkpt lat="43.5112414009731" lon="2.4106036197128113"><ele>351.0</ele><time>2026-04-02T08:42:54Z</time></trkpt><trkpt lat="43.511285828486876" lon="2.410943473453516"><ele>351.0</ele><time>2026-04-02T08:42:55Z</time></trkpt><trkpt lat="43.51132950138205" lon="2.4112545505987124"><ele>351.0</ele><time>2026-04-02T08:42:56Z</time></trkpt><trkpt lat="43.511370974874886" lon="2.4115347605834767"><ele>351.0</ele><time>2026-04-02T08:42:57Z</time></trkpt><trkpt lat="43.511394637220945" lon="2.4117909934703206"><ele>351.0</ele><time>2026-04-02T08:42:58Z</time></trkpt><trkpt lat="43.511353615597464" lon="2.4120165381401435"><ele>351.0</ele><time>2026-04-02T08:42:59Z</time></trkpt><trkpt lat="43.5112875608168" lon="2.4122294665928914"><ele>351.0</ele><time>2026-04-02T08:43:00Z</time></trkpt><trkpt lat="43.51119303370459" lon="2.4124390831716416"><ele>353.0</ele><time>2026-04-02T08:43:01Z</time></trkpt><trkpt lat="43.51106311073334" lon="2.412604532574491"><ele>355.0</ele><time>2026-04-02T08:43:02Z</time></trkpt><trkpt lat="43.51090203117379" lon="2.412728883326832"><ele>357.0</ele><time>2026-04-02T08:43:03Z</time></trkpt><trkpt lat="43.51072231924013" lon="2.412846153256591"><ele>357.0</ele><time>2026-04-02T08:43:04Z</time></trkpt><trkpt lat="43.510549643652986" lon="2.4129761553820237"><ele>357.0</ele><time>2026-04-02T08:43:05Z</time></trkpt><trkpt lat="43.510377797230895" lon="2.4131308614087517"><ele>357.0</ele><time>2026-04-02T08:43:06Z</time></trkpt><trkpt lat="43.510208349321175" lon="2.4133482881441997"><ele>358.3333333333333</ele><time>2026-04-02T08:43:07Z</time></trkpt><trkpt lat="43.510042827684664" lon="2.4135621601853887"><ele>359.66666666666663</ele><time>2026-04-02T08:43:08Z</time></trkpt><trkpt lat="43.50988482349146" lon="2.4137390999531543"><ele>361.0</ele><time>2026-04-02T08:43:09Z</time></trkpt><trkpt lat="43.50974452286255" lon="2.4139245321076643"><ele>362.66666666666663</ele><time>2026-04-02T08:43:10Z</time></trkpt><trkpt lat="43.50961164778322" lon="2.4141645650984964"><ele>364.3333333333333</ele><time>2026-04-02T08:43:11Z</time></trkpt><trkpt lat="43.50950225710072" lon="2.414442055277125"><ele>366.0</ele><time>2026-04-02T08:43:12Z</time></trkpt><trkpt lat="43.509414681112624" lon="2.4147478203040267"><ele>370.5</ele><time>2026-04-02T08:43:13Z</time></trkpt><trkpt lat="43.50933522279101" lon="2.4150692883655442"><ele>375.0</ele><time>2026-04-02T08:43:14Z</time></trkpt><trkpt lat="43.50924793049593" lon="2.415402251834371"><ele>376.0</ele><time>2026-04-02T08:43:15Z</time></trkpt><trkpt lat="43.5091570209856" lon="2.4157523341218425"><ele>377.0</ele><time>2026-04-02T08:43:16Z</time></trkpt><trkpt lat="43.50907373919151" lon="2.4160740593413457"><ele>378.6666666666667</ele><time>2026-04-02T08:43:17Z</time></trkpt><trkpt lat="43.509005589755745" lon="2.416367926210797"><ele>380.3333333333333</ele><time>2026-04-02T08:43:18Z</time></trkpt><trkpt lat="43.50894344713112" lon="2.416658832821312"><ele>382.0</ele><time>2026-04-02T08:43:19Z</time></trkpt><trkpt lat="43.508900110525666" lon="2.4169398204718067"><ele>383.66666666666663</ele><time>2026-04-02T08:43:20Z</time></trkpt><trkpt lat="43.50887149810168" lon="2.4171957333949874"><ele>385.3333333333333</ele><time>2026-04-02T08:43:21Z</time></trkpt><trkpt lat="43.50885899599087" lon="2.41742177483407"><ele>387.0</ele><time>2026-04-02T08:43:22Z</time></trkpt><trkpt lat="43.50889436022533" lon="2.417649620300604"><ele>387.0</ele><time>2026-04-02T08:43:23Z</time></trkpt><trkpt lat="43.508984290365255" lon="2.4178801444988434"><ele>387.0</ele><time>2026-04-02T08:43:24Z</time></trkpt><trkpt lat="43.50910433096162" lon="2.4180559599642475"><ele>387.0</ele><time>2026-04-02T08:43:25Z</time></trkpt><trkpt lat="43.509251580853196" lon="2.418180347661698"><ele>389.0</ele><time>2026-04-02T08:43:26Z</time></trkpt><trkpt lat="43.50943207259098" lon="2.418253300448828"><ele>391.0</ele><time>2026-04-02T08:43:27Z</time></trkpt><trkpt lat="43.50963211005405" lon="2.418300879503637"><ele>393.0</ele><time>2026-04-02T08:43:28Z</time></trkpt><trkpt lat="43.50982693597403" lon="2.4183699979437487"><ele>393.0</ele><time>2026-04-02T08:43:29Z</time></trkpt><trkpt lat="43.510008515003506" lon="2.418468299916822"><ele>393.0</ele><time>2026-04-02T08:43:30Z</time></trkpt><trkpt lat="43.51015427008602" lon="2.41864842066804"><ele>393.0</ele><time>2026-04-02T08:43:31Z</time></trkpt><trkpt lat="43.51028215269245" lon="2.418868884227748"><ele>391.5</ele><time>2026-04-02T08:43:32Z</time></trkpt><trkpt lat="43.510434012761294" lon="2.419127130476171"><ele>390.0</ele><time>2026-04-02T08:43:33Z</time></trkpt><trkpt lat="43.510599088346396" lon="2.419371749656748"><ele>390.0</ele><time>2026-04-02T08:43:34Z</time></trkpt><trkpt lat="43.51075554470173" lon="2.4196128486175557"><ele>390.0</ele><time>2026-04-02T08:43:35Z</time></trkpt><trkpt lat="43.51094316526904" lon="2.419840368744313"><ele>395.0</ele><time>2026-04-02T08:43:36Z</time></trkpt><trkpt lat="43.51114694379836" lon="2.4200528155770398"><ele>400.0</ele><time>2026-04-02T08:43:37Z</time></trkpt><trkpt lat="43.51134748442011" lon="2.4202607663825964"><ele>400.0</ele><time>2026-04-02T08:43:38Z</time></trkpt><trkpt lat="43.51154951282901" lon="2.420453395722147"><ele>400.0</ele><time>2026-04-02T08:43:39Z</time></trkpt><trkpt lat="43.511766106833015" lon="2.420615713164779"><ele>400.33333333333337</ele><time>2026-04-02T08:43:40Z</time></trkpt><trkpt lat="43.511954581000566" lon="2.4207723093208005"><ele>400.66666666666663</ele><time>2026-04-02T08:43:41Z</time></trkpt><trkpt lat="43.51209174348548" lon="2.4209616730725236"><ele>401.0</ele><time>2026-04-02T08:43:42Z</time></trkpt><trkpt lat="43.512213177422566" lon="2.421202514347888"><ele>404.3333333333333</ele><time>2026-04-02T08:43:43Z</time></trkpt><trkpt lat="43.512346078559716" lon="2.4214017917552724"><ele>407.66666666666663</ele><time>2026-04-02T08:43:44Z</time></trkpt><trkpt lat="43.51247113254863" lon="2.4215971338640796"><ele>411.0</ele><time>2026-04-02T08:43:45Z</time></trkpt><trkpt lat="43.512630143030194" lon="2.421746162797797"><ele>411.0</ele><time>2026-04-02T08:43:46Z</time></trkpt><trkpt lat="43.51278587275216" lon="2.4218145596167893"><ele>411.0</ele><time>2026-04-02T08:43:47Z</time></trkpt><trkpt lat="43.5129430135498" lon="2.421830659774938"><ele>411.0</ele><time>2026-04-02T08:43:48Z</time></trkpt><trkpt lat="43.513089143811584" lon="2.4217455466293565"><ele>411.66666666666663</ele><time>2026-04-02T08:43:49Z</time></trkpt><trkpt lat="43.51320756853483" lon="2.4215928962982116"><ele>412.3333333333333</ele><time>2026-04-02T08:43:50Z</time></trkpt><trkpt lat="43.51330125203219" lon="2.421373233177018"><ele>413.0</ele><time>2026-04-02T08:43:51Z</time></trkpt><trkpt lat="43.51338971703581" lon="2.421134585816526"><ele>413.0</ele><time>2026-04-02T08:43:52Z</time></trkpt><trkpt lat="43.513534017334436" lon="2.4209368639849798"><ele>413.0</ele><time>2026-04-02T08:43:53Z</time></trkpt><trkpt lat="43.51370746191683" lon="2.4207496303775207"><ele>413.0</ele><time>2026-04-02T08:43:54Z</time></trkpt><trkpt lat="43.51386255949378" lon="2.420522935476979"><ele>418.0</ele><time>2026-04-02T08:43:55Z</time></trkpt><trkpt lat="43.51400437847775" lon="2.4202561433235825"><ele>423.0</ele><time>2026-04-02T08:43:56Z</time></trkpt><trkpt lat="43.514145470899976" lon="2.4200194086642175"><ele>423.0</ele><time>2026-04-02T08:43:57Z</time></trkpt><trkpt lat="43.51432398770622" lon="2.419879538688369"><ele>423.0</ele><time>2026-04-02T08:43:58Z</time></trkpt><trkpt lat="43.51450665377511" lon="2.41975969201018"><ele>423.0</ele><time>2026-04-02T08:43:59Z</time></trkpt><trkpt lat="43.51472167527656" lon="2.419666372362229"><ele>424.0</ele><time>2026-04-02T08:44:00Z</time></trkpt><trkpt lat="43.51495603877923" lon="2.4195578487499882"><ele>425.0</ele><time>2026-04-02T08:44:01Z</time></trkpt><trkpt lat="43.51519629385046" lon="2.4194746503273707"><ele>429.5</ele><time>2026-04-02T08:44:02Z</time></trkpt><trkpt lat="43.51544844790821" lon="2.4194272400770043"><ele>434.0</ele><time>2026-04-02T08:44:03Z</time></trkpt><trkpt lat="43.51568858395247" lon="2.41936381997175"><ele>434.0</ele><time>2026-04-02T08:44:04Z</time></trkpt><trkpt lat="43.51589383766138" lon="2.4193361311311414"><ele>434.0</ele><time>2026-04-02T08:44:05Z</time></trkpt><trkpt lat="43.51606977842682" lon="2.4192976021267265"><ele>434.0</ele><time>2026-04-02T08:44:06Z</time></trkpt><trkpt lat="43.51622014887719" lon="2.4193406936133415"><ele>434.75</ele><time>2026-04-02T08:44:07Z</time></trkpt><trkpt lat="43.516355705022555" lon="2.4194356486088124"><ele>435.5</ele><time>2026-04-02T08:44:08Z</time></trkpt><trkpt lat="43.51643355005066" lon="2.4196011305876857"><ele>436.25</ele><time>2026-04-02T08:44:09Z</time></trkpt><trkpt lat="43.516477391799135" lon="2.4197972953018363"><ele>437.0</ele><time>2026-04-02T08:44:10Z</time></trkpt><trkpt lat="43.51652996158534" lon="2.4200420745499187"><ele>437.0</ele><time>2026-04-02T08:44:11Z</time></trkpt><trkpt lat="43.516552472893096" lon="2.4203143887229355"><ele>437.0</ele><time>2026-04-02T08:44:12Z</time></trkpt><trkpt lat="43.51661177283681" lon="2.4205446461240907"><ele>437.0</ele><time>2026-04-02T08:44:13Z</time></trkpt><trkpt lat="43.51668305229271" lon="2.420717664680533"><ele>436.75</ele><time>2026-04-02T08:44:14Z</time></trkpt><trkpt lat="43.51680012064409" lon="2.4208338044833106"><ele>436.5</ele><time>2026-04-02T08:44:15Z</time></trkpt><trkpt lat="43.516852807104854" lon="2.420963093584681"><ele>436.25</ele><time>2026-04-02T08:44:16Z</time></trkpt><trkpt lat="43.51690957037648" lon="2.4210567715899107"><ele>436.0</ele><time>2026-04-02T08:44:17Z</time></trkpt><trkpt lat="43.517237350496" lon="2.420855109916339"><ele>436.0</ele><time>2026-04-02T08:44:18Z</time></trkpt><trkpt lat="43.51741051132247" lon="2.420854982018095"><ele>436.0</ele><time>2026-04-02T08:44:19Z</time></trkpt><trkpt lat="43.51759684462639" lon="2.42091370497895"><ele>436.0</ele><time>2026-04-02T08:44:20Z</time></trkpt><trkpt lat="43.51776651846977" lon="2.4210260700521493"><ele>436.0</ele><time>2026-04-02T08:44:21Z</time></trkpt><trkpt lat="43.51788505937826" lon="2.4211605262239284"><ele>436.0</ele><time>2026-04-02T08:44:22Z</time></trkpt><trkpt lat="43.51795543234606" lon="2.4213242174904526"><ele>436.0</ele><time>2026-04-02T08:44:23Z</time></trkpt><trkpt lat="43.51797195095988" lon="2.42151055712868"><ele>436.0</ele><time>2026-04-02T08:44:24Z</time></trkpt><trkpt lat="43.5179459850964" lon="2.4217170657361686"><ele>437.33333333333337</ele><time>2026-04-02T08:44:25Z</time></trkpt><trkpt lat="43.51787656718532" lon="2.4219197186578585"><ele>438.66666666666663</ele><time>2026-04-02T08:44:26Z</time></trkpt><trkpt lat="43.51777371147885" lon="2.422108840130373"><ele>440.0</ele><time>2026-04-02T08:44:27Z</time></trkpt><trkpt lat="43.51764477939089" lon="2.4222660555717126"><ele>440.3333333333333</ele><time>2026-04-02T08:44:28Z</time></trkpt><trkpt lat="43.517501979104765" lon="2.422409468647355"><ele>440.66666666666663</ele><time>2026-04-02T08:44:29Z</time></trkpt><trkpt lat="43.51735793995513" lon="2.4225493415779007"><ele>441.0</ele><time>2026-04-02T08:44:30Z</time></trkpt><trkpt lat="43.51722345427953" lon="2.4227319371490683"><ele>441.0</ele><time>2026-04-02T08:44:31Z</time></trkpt><trkpt lat="43.517109374428536" lon="2.422979466950889"><ele>441.0</ele><time>2026-04-02T08:44:32Z</time></trkpt><trkpt lat="43.51701702170984" lon="2.423252082820119"><ele>441.0</ele><time>2026-04-02T08:44:33Z</time></trkpt><trkpt lat="43.51695073400021" lon="2.423502864201098"><ele>444.0</ele><time>2026-04-02T08:44:34Z</time></trkpt><trkpt lat="43.516892010926426" lon="2.4237255972912743"><ele>447.0</ele><time>2026-04-02T08:44:35Z</time></trkpt><trkpt lat="43.51684752216748" lon="2.4239373891217038"><ele>450.0</ele><time>2026-04-02T08:44:36Z</time></trkpt><trkpt lat="43.516842971476834" lon="2.4241635091337046"><ele>450.66666666666663</ele><time>2026-04-02T08:44:37Z</time></trkpt><trkpt lat="43.51689171048213" lon="2.424380969115759"><ele>451.3333333333333</ele><time>2026-04-02T08:44:38Z</time></trkpt><trkpt lat="43.517004467997346" lon="2.4245893529981912"><ele>452.0</ele><time>2026-04-02T08:44:39Z</time></trkpt><trkpt lat="43.51714165370343" lon="2.4247977266770078"><ele>454.66666666666663</ele><time>2026-04-02T08:44:40Z</time></trkpt><trkpt lat="43.51727596131245" lon="2.425019164568637"><ele>457.33333333333337</ele><time>2026-04-02T08:44:41Z</time></trkpt><trkpt lat="43.51739986254226" lon="2.4252372843643277"><ele>460.0</ele><time>2026-04-02T08:44:42Z</time></trkpt><trkpt lat="43.517518852860256" lon="2.4254519278052613"><ele>462.33333333333337</ele><time>2026-04-02T08:44:43Z</time></trkpt><trkpt lat="43.51763557672031" lon="2.4256588648222186"><ele>464.66666666666663</ele><time>2026-04-02T08:44:44Z</time></trkpt><trkpt lat="43.51774558210792" lon="2.425862954900165"><ele>467.0</ele><time>2026-04-02T08:44:45Z</time></trkpt><trkpt lat="43.51781784522527" lon="2.4260657013903284"><ele>467.66666666666663</ele><time>2026-04-02T08:44:46Z</time></trkpt><trkpt lat="43.51786235120966" lon="2.4263222644839586"><ele>468.33333333333337</ele><time>2026-04-02T08:44:47Z</time></trkpt><trkpt lat="43.51788528236783" lon="2.426587238684152"><ele>469.0</ele><time>2026-04-02T08:44:48Z</time></trkpt><trkpt lat="43.51789567188752" lon="2.4268844374184884"><ele>468.33333333333337</ele><time>2026-04-02T08:44:49Z</time></trkpt><trkpt lat="43.51792347498527" lon="2.4271810503645677"><ele>467.66666666666663</ele><time>2026-04-02T08:44:50Z</time></trkpt><trkpt lat="43.51794357335468" lon="2.4274856672539364"><ele>467.0</ele><time>2026-04-02T08:44:51Z</time></trkpt><trkpt lat="43.51796053456417" lon="2.4277729300183384"><ele>470.3333333333333</ele><time>2026-04-02T08:44:52Z</time></trkpt><trkpt lat="43.517988700375355" lon="2.4280589804676977"><ele>473.66666666666663</ele><time>2026-04-02T08:44:53Z</time></trkpt><trkpt lat="43.51805524683656" lon="2.4283310065037065"><ele>477.0</ele><time>2026-04-02T08:44:54Z</time></trkpt><trkpt lat="43.518159619017325" lon="2.428597358869784"><ele>478.5</ele><time>2026-04-02T08:44:55Z</time></trkpt><trkpt lat="43.51827746111454" lon="2.428864078520256"><ele>480.0</ele><time>2026-04-02T08:44:56Z</time></trkpt><trkpt lat="43.51839738721966" lon="2.4291568515123636"><ele>480.0</ele><time>2026-04-02T08:44:57Z</time></trkpt><trkpt lat="43.518519622570544" lon="2.429462491943026"><ele>480.0</ele><time>2026-04-02T08:44:58Z</time></trkpt><trkpt lat="43.51865144800824" lon="2.4297778199979083"><ele>481.5</ele><time>2026-04-02T08:44:59Z</time></trkpt><trkpt lat="43.518783786300986" lon="2.4301040780398964"><ele>483.0</ele><time>2026-04-02T08:45:00Z</time></trkpt><trkpt lat="43.51892130663787" lon="2.4304476386755676"><ele>484.0</ele><time>2026-04-02T08:45:01Z</time></trkpt><trkpt lat="43.51906268908758" lon="2.430796226877331"><ele>485.0</ele><time>2026-04-02T08:45:02Z</time></trkpt><trkpt lat="43.519193827048035" lon="2.4311218592498145"><ele>485.0</ele><time>2026-04-02T08:45:03Z</time></trkpt><trkpt lat="43.519319637625856" lon="2.431430139348875"><ele>485.0</ele><time>2026-04-02T08:45:04Z</time></trkpt><trkpt lat="43.51943487788399" lon="2.431706630613506"><ele>485.0</ele><time>2026-04-02T08:45:05Z</time></trkpt><trkpt lat="43.519532075415185" lon="2.431945583897525"><ele>485.0</ele><time>2026-04-02T08:45:06Z</time></trkpt><trkpt lat="43.519613278214386" lon="2.4321263111661193"><ele>485.0</ele><time>2026-04-02T08:45:07Z</time></trkpt><trkpt lat="43.51970820254207" lon="2.4322568339400936"><ele>485.25</ele><time>2026-04-02T08:45:08Z</time></trkpt><trkpt lat="43.51983526732931" lon="2.432325491535282"><ele>485.5</ele><time>2026-04-02T08:45:09Z</time></trkpt><trkpt lat="43.51998086386347" lon="2.4323254796502174"><ele>485.75</ele><time>2026-04-02T08:45:10Z</time></trkpt><trkpt lat="43.52012839767335" lon="2.432258177546168"><ele>486.0</ele><time>2026-04-02T08:45:11Z</time></trkpt><trkpt lat="43.520283716283366" lon="2.4321459641841217"><ele>487.66666666666663</ele><time>2026-04-02T08:45:12Z</time></trkpt><trkpt lat="43.52045432268248" lon="2.432006866617595"><ele>489.3333333333333</ele><time>2026-04-02T08:45:13Z</time></trkpt><trkpt lat="43.52064575453726" lon="2.4318684752424558"><ele>491.0</ele><time>2026-04-02T08:45:14Z</time></trkpt><trkpt lat="43.520856879368225" lon="2.431719407403684"><ele>491.0</ele><time>2026-04-02T08:45:15Z</time></trkpt><trkpt lat="43.521086917778696" lon="2.431562068385178"><ele>491.0</ele><time>2026-04-02T08:45:16Z</time></trkpt><trkpt lat="43.52131058799765" lon="2.4314062561313885"><ele>491.66666666666663</ele><time>2026-04-02T08:45:17Z</time></trkpt><trkpt lat="43.52150736178573" lon="2.431266564353094"><ele>492.33333333333337</ele><time>2026-04-02T08:45:18Z</time></trkpt><trkpt lat="43.52168276020745" lon="2.431141751093629"><ele>493.0</ele><time>2026-04-02T08:45:19Z</time></trkpt><trkpt lat="43.521850980769756" lon="2.4310801837991964"><ele>493.0</ele><time>2026-04-02T08:45:20Z</time></trkpt><trkpt lat="43.52200553187125" lon="2.4310669268426257"><ele>493.0</ele><time>2026-04-02T08:45:21Z</time></trkpt><trkpt lat="43.522161303281905" lon="2.431128206628183"><ele>493.0</ele><time>2026-04-02T08:45:22Z</time></trkpt><trkpt lat="43.522306070271505" lon="2.431243132833463"><ele>493.6666666666667</ele><time>2026-04-02T08:45:23Z</time></trkpt><trkpt lat="43.52242051818248" lon="2.4313873314423655"><ele>494.33333333333337</ele><time>2026-04-02T08:45:24Z</time></trkpt><trkpt lat="43.522499564575575" lon="2.4315767458070727"><ele>495.0</ele><time>2026-04-02T08:45:25Z</time></trkpt><trkpt lat="43.52252787487724" lon="2.431796423782237"><ele>495.0</ele><time>2026-04-02T08:45:26Z</time></trkpt><trkpt lat="43.52251397525333" lon="2.432041503261421"><ele>495.0</ele><time>2026-04-02T08:45:27Z</time></trkpt><trkpt lat="43.52246196893768" lon="2.432310087008127"><ele>495.0</ele><time>2026-04-02T08:45:28Z</time></trkpt><trkpt lat="43.522419682468666" lon="2.4325858519402206"><ele>495.33333333333337</ele><time>2026-04-02T08:45:29Z</time></trkpt><trkpt lat="43.52236320967192" lon="2.4328149687864653"><ele>495.6666666666667</ele><time>2026-04-02T08:45:30Z</time></trkpt><trkpt lat="43.522369370322224" lon="2.4330497928011283"><ele>496.0</ele><time>2026-04-02T08:45:31Z</time></trkpt><trkpt lat="43.52244033696028" lon="2.433287387690914"><ele>496.6666666666667</ele><time>2026-04-02T08:45:32Z</time></trkpt><trkpt lat="43.52256021494233" lon="2.4335214602143878"><ele>497.33333333333337</ele><time>2026-04-02T08:45:33Z</time></trkpt><trkpt lat="43.52270302225356" lon="2.4337666957658346"><ele>498.0</ele><time>2026-04-02T08:45:34Z</time></trkpt><trkpt lat="43.52284849821417" lon="2.434043578614696"><ele>498.5</ele><time>2026-04-02T08:45:35Z</time></trkpt><trkpt lat="43.52299963481765" lon="2.4343512101979834"><ele>499.0</ele><time>2026-04-02T08:45:36Z</time></trkpt><trkpt lat="43.5231608058544" lon="2.4346808335342294"><ele>500.5</ele><time>2026-04-02T08:45:37Z</time></trkpt><trkpt lat="43.523324483001204" lon="2.435007389990276"><ele>502.0</ele><time>2026-04-02T08:45:38Z</time></trkpt><trkpt lat="43.5234961114869" lon="2.4353543342004165"><ele>503.5</ele><time>2026-04-02T08:45:39Z</time></trkpt><trkpt lat="43.52367069689256" lon="2.4357103497304453"><ele>505.0</ele><time>2026-04-02T08:45:40Z</time></trkpt><trkpt lat="43.52384606293791" lon="2.43606716681023"><ele>509.5</ele><time>2026-04-02T08:45:41Z</time></trkpt><trkpt lat="43.524024379213344" lon="2.4364251486609847"><ele>514.0</ele><time>2026-04-02T08:45:42Z</time></trkpt><trkpt lat="43.524192892034975" lon="2.4367679043080583"><ele>514.0</ele><time>2026-04-02T08:45:43Z</time></trkpt><trkpt lat="43.52434249558863" lon="2.4370819169370947"><ele>514.0</ele><time>2026-04-02T08:45:44Z</time></trkpt><trkpt lat="43.52447801475362" lon="2.43736250814431"><ele>517.6666666666667</ele><time>2026-04-02T08:45:45Z</time></trkpt><trkpt lat="43.52460334383641" lon="2.437625701324364"><ele>521.3333333333334</ele><time>2026-04-02T08:45:46Z</time></trkpt><trkpt lat="43.52471520857761" lon="2.4378606006845027"><ele>525.0</ele><time>2026-04-02T08:45:47Z</time></trkpt><trkpt lat="43.52481036264123" lon="2.4380567045972974"><ele>525.0</ele><time>2026-04-02T08:45:48Z</time></trkpt><trkpt lat="43.5248999696684" lon="2.438199706344154"><ele>525.0</ele><time>2026-04-02T08:45:49Z</time></trkpt><trkpt lat="43.52500530748216" lon="2.4382922623143175"><ele>525.0</ele><time>2026-04-02T08:45:50Z</time></trkpt><trkpt lat="43.52513640818652" lon="2.438306911323367"><ele>525.0</ele><time>2026-04-02T08:45:51Z</time></trkpt><trkpt lat="43.52528198006067" lon="2.4382679324577903"><ele>528.6666666666666</ele><time>2026-04-02T08:45:52Z</time></trkpt><trkpt lat="43.525471864506315" lon="2.4382465824140147"><ele>532.3333333333333</ele><time>2026-04-02T08:45:53Z</time></trkpt><trkpt lat="43.52565930603324" lon="2.4383121261210925"><ele>536.0</ele><time>2026-04-02T08:45:54Z</time></trkpt><trkpt lat="43.52586094649897" lon="2.4383621184071007"><ele>536.0</ele><time>2026-04-02T08:45:55Z</time></trkpt><trkpt lat="43.52605396721275" lon="2.438404906262807"><ele>536.0</ele><time>2026-04-02T08:45:56Z</time></trkpt><trkpt lat="43.526218682092406" lon="2.438407738772539"><ele>536.0</ele><time>2026-04-02T08:45:57Z</time></trkpt><trkpt lat="43.5263454187942" lon="2.4384608648610677"><ele>537.5</ele><time>2026-04-02T08:45:58Z</time></trkpt><trkpt lat="43.526435093744105" lon="2.4385964955313786"><ele>539.0</ele><time>2026-04-02T08:45:59Z</time></trkpt><trkpt lat="43.52647598166339" lon="2.43878340681336"><ele>540.5</ele><time>2026-04-02T08:46:00Z</time></trkpt><trkpt lat="43.526427799582294" lon="2.439004669201508"><ele>542.0</ele><time>2026-04-02T08:46:01Z</time></trkpt><trkpt lat="43.526341736038304" lon="2.439241496638276"><ele>541.3333333333333</ele><time>2026-04-02T08:46:02Z</time></trkpt><trkpt lat="43.52621213184595" lon="2.4394705873264972"><ele>540.6666666666666</ele><time>2026-04-02T08:46:03Z</time></trkpt><trkpt lat="43.52610604163668" lon="2.439710828148906"><ele>540.0</ele><time>2026-04-02T08:46:04Z</time></trkpt><trkpt lat="43.52601391963873" lon="2.4399743880562608"><ele>540.0</ele><time>2026-04-02T08:46:05Z</time></trkpt><trkpt lat="43.52595608278701" lon="2.4402986352213856"><ele>540.0</ele><time>2026-04-02T08:46:06Z</time></trkpt><trkpt lat="43.525906086377674" lon="2.440631525818437"><ele>542.3333333333334</ele><time>2026-04-02T08:46:07Z</time></trkpt><trkpt lat="43.525848782076686" lon="2.4409176860110864"><ele>544.6666666666667</ele><time>2026-04-02T08:46:08Z</time></trkpt><trkpt lat="43.525804459717904" lon="2.4411856972931267"><ele>547.0</ele><time>2026-04-02T08:46:09Z</time></trkpt><trkpt lat="43.525801869781255" lon="2.441467397260954"><ele>548.3333333333334</ele><time>2026-04-02T08:46:10Z</time></trkpt><trkpt lat="43.525854204171" lon="2.4417499619894243"><ele>549.6666666666666</ele><time>2026-04-02T08:46:11Z</time></trkpt><trkpt lat="43.525932816978454" lon="2.442029082032549"><ele>551.0</ele><time>2026-04-02T08:46:12Z</time></trkpt><trkpt lat="43.52595125019018" lon="2.442314359392081"><ele>551.3333333333333</ele><time>2026-04-02T08:46:13Z</time></trkpt><trkpt lat="43.52592291605208" lon="2.4426090147492645"><ele>551.6666666666666</ele><time>2026-04-02T08:46:14Z</time></trkpt><trkpt lat="43.5258698849602" lon="2.4429205555365807"><ele>552.0</ele><time>2026-04-02T08:46:15Z</time></trkpt><trkpt lat="43.52583423790829" lon="2.44322931491103"><ele>553.3333333333334</ele><time>2026-04-02T08:46:16Z</time></trkpt><trkpt lat="43.52581068925384" lon="2.4435261266914394"><ele>554.6666666666667</ele><time>2026-04-02T08:46:17Z</time></trkpt><trkpt lat="43.52583945682989" lon="2.4438253358897875"><ele>556.0</ele><time>2026-04-02T08:46:18Z</time></trkpt><trkpt lat="43.5258768238355" lon="2.4440966081365056"><ele>557.3333333333334</ele><time>2026-04-02T08:46:19Z</time></trkpt><trkpt lat="43.52583400137821" lon="2.4443520049936027"><ele>558.6666666666666</ele><time>2026-04-02T08:46:20Z</time></trkpt><trkpt lat="43.525752009759685" lon="2.4446258687460802"><ele>560.0</ele><time>2026-04-02T08:46:21Z</time></trkpt><trkpt lat="43.52567657351061" lon="2.4448749293947536"><ele>561.0</ele><time>2026-04-02T08:46:22Z</time></trkpt><trkpt lat="43.525634535686095" lon="2.4451099910649514"><ele>562.0</ele><time>2026-04-02T08:46:23Z</time></trkpt><trkpt lat="43.525620425416115" lon="2.4453481442066423"><ele>563.0</ele><time>2026-04-02T08:46:24Z</time></trkpt><trkpt lat="43.525663463774734" lon="2.4455816695228356"><ele>564.0</ele><time>2026-04-02T08:46:25Z</time></trkpt><trkpt lat="43.525762721012576" lon="2.445831419883433"><ele>565.0</ele><time>2026-04-02T08:46:26Z</time></trkpt><trkpt lat="43.525906401972385" lon="2.4460572087354486"><ele>566.0</ele><time>2026-04-02T08:46:27Z</time></trkpt><trkpt lat="43.52607897668709" lon="2.4462699935309464"><ele>566.0</ele><time>2026-04-02T08:46:28Z</time></trkpt><trkpt lat="43.52626549570782" lon="2.446452767506531"><ele>566.0</ele><time>2026-04-02T08:46:29Z</time></trkpt><trkpt lat="43.52644155736471" lon="2.446670087281136"><ele>566.0</ele><time>2026-04-02T08:46:30Z</time></trkpt><trkpt lat="43.526606679081176" lon="2.4468636570383318"><ele>566.0</ele><time>2026-04-02T08:46:31Z</time></trkpt><trkpt lat="43.52674916684339" lon="2.447043142049867"><ele>566.0</ele><time>2026-04-02T08:46:32Z</time></trkpt><trkpt lat="43.526852680575054" lon="2.447227871987325"><ele>566.0</ele><time>2026-04-02T08:46:33Z</time></trkpt><trkpt lat="43.52690967828105" lon="2.447448765367145"><ele>566.0</ele><time>2026-04-02T08:46:34Z</time></trkpt><trkpt lat="43.52690975235805" lon="2.44770863796451"><ele>566.0</ele><time>2026-04-02T08:46:35Z</time></trkpt><trkpt lat="43.52684800885693" lon="2.4479831781519876"><ele>568.0</ele><time>2026-04-02T08:46:36Z</time></trkpt><trkpt lat="43.52678659064338" lon="2.4482878889775335"><ele>570.0</ele><time>2026-04-02T08:46:37Z</time></trkpt><trkpt lat="43.52673935984168" lon="2.448559293541103"><ele>572.0</ele><time>2026-04-02T08:46:38Z</time></trkpt><trkpt lat="43.52669839191745" lon="2.4487934351616256"><ele>574.3333333333333</ele><time>2026-04-02T08:46:39Z</time></trkpt><trkpt lat="43.52670741119604" lon="2.449010745165775"><ele>576.6666666666666</ele><time>2026-04-02T08:46:40Z</time></trkpt><trkpt lat="43.52677195477908" lon="2.4492343178535423"><ele>579.0</ele><time>2026-04-02T08:46:41Z</time></trkpt><trkpt lat="43.52689804294892" lon="2.449458598973102"><ele>579.0</ele><time>2026-04-02T08:46:42Z</time></trkpt><trkpt lat="43.52704280365014" lon="2.4497000872046963"><ele>579.0</ele><time>2026-04-02T08:46:43Z</time></trkpt><trkpt lat="43.52718443183708" lon="2.4499658062590046"><ele>579.0</ele><time>2026-04-02T08:46:44Z</time></trkpt><trkpt lat="43.52733388644517" lon="2.450256826502302"><ele>579.0</ele><time>2026-04-02T08:46:45Z</time></trkpt><trkpt lat="43.52748092664005" lon="2.4505491072347105"><ele>578.0</ele><time>2026-04-02T08:46:46Z</time></trkpt><trkpt lat="43.52763166769591" lon="2.4508487394804805"><ele>577.0</ele><time>2026-04-02T08:46:47Z</time></trkpt><trkpt lat="43.527795495331645" lon="2.451172083030431"><ele>583.0</ele><time>2026-04-02T08:46:48Z</time></trkpt><trkpt lat="43.527893960460176" lon="2.451521928529321"><ele>589.0</ele><time>2026-04-02T08:46:49Z</time></trkpt><trkpt lat="43.52796176583844" lon="2.4518702912457995"><ele>591.0</ele><time>2026-04-02T08:46:50Z</time></trkpt><trkpt lat="43.52800149793451" lon="2.4522528679957007"><ele>593.0</ele><time>2026-04-02T08:46:51Z</time></trkpt><trkpt lat="43.52800540456045" lon="2.4526411477335857"><ele>592.0</ele><time>2026-04-02T08:46:52Z</time></trkpt><trkpt lat="43.52800160267197" lon="2.4529808043828503"><ele>591.0</ele><time>2026-04-02T08:46:53Z</time></trkpt><trkpt lat="43.52800835615601" lon="2.45326442618596"><ele>591.0</ele><time>2026-04-02T08:46:54Z</time></trkpt><trkpt lat="43.52802354515956" lon="2.453503919755712"><ele>591.0</ele><time>2026-04-02T08:46:55Z</time></trkpt><trkpt lat="43.52808895280826" lon="2.453697914357866"><ele>591.0</ele><time>2026-04-02T08:46:56Z</time></trkpt><trkpt lat="43.52820747402458" lon="2.4538770412499655"><ele>591.6666666666666</ele><time>2026-04-02T08:46:57Z</time></trkpt><trkpt lat="43.52839257304673" lon="2.454019523998677"><ele>592.3333333333333</ele><time>2026-04-02T08:46:58Z</time></trkpt><trkpt lat="43.52860577783668" lon="2.4541313246415037"><ele>593.0</ele><time>2026-04-02T08:46:59Z</time></trkpt><trkpt lat="43.528806104613196" lon="2.454230147217095"><ele>593.0</ele><time>2026-04-02T08:47:00Z</time></trkpt><trkpt lat="43.528959279309916" lon="2.454345913390095"><ele>593.0</ele><time>2026-04-02T08:47:01Z</time></trkpt><trkpt lat="43.52907069172914" lon="2.4544518865143026"><ele>593.0</ele><time>2026-04-02T08:47:02Z</time></trkpt><trkpt lat="43.52915081976414" lon="2.4545774115405194"><ele>593.0</ele><time>2026-04-02T08:47:03Z</time></trkpt><trkpt lat="43.52917734359328" lon="2.4547739093582464"><ele>593.0</ele><time>2026-04-02T08:47:04Z</time></trkpt><trkpt lat="43.529199851646844" lon="2.454977220898908"><ele>593.0</ele><time>2026-04-02T08:47:05Z</time></trkpt><trkpt lat="43.52922200863643" lon="2.455132772604917"><ele>593.0</ele><time>2026-04-02T08:47:06Z</time></trkpt><trkpt lat="43.52920959451589" lon="2.45522205714414"><ele>593.0</ele><time>2026-04-02T08:47:07Z</time></trkpt><trkpt lat="43.52902566473348" lon="2.4552922324896684"><ele>593.0</ele><time>2026-04-02T08:47:09Z</time></trkpt><trkpt lat="43.5288763515243" lon="2.4553223230284695"><ele>593.0</ele><time>2026-04-02T08:47:10Z</time></trkpt><trkpt lat="43.528697652396886" lon="2.455337384510722"><ele>593.0</ele><time>2026-04-02T08:47:11Z</time></trkpt><trkpt lat="43.528504773680915" lon="2.4553571430939765"><ele>591.3333333333333</ele><time>2026-04-02T08:47:12Z</time></trkpt><trkpt lat="43.52832179279929" lon="2.45537836362522"><ele>589.6666666666666</ele><time>2026-04-02T08:47:13Z</time></trkpt><trkpt lat="43.52814869019904" lon="2.455472442739908"><ele>588.0</ele><time>2026-04-02T08:47:14Z</time></trkpt><trkpt lat="43.52798159191932" lon="2.4556280370760595"><ele>595.0</ele><time>2026-04-02T08:47:15Z</time></trkpt><trkpt lat="43.52782980719986" lon="2.455823931783534"><ele>602.0</ele><time>2026-04-02T08:47:16Z</time></trkpt><trkpt lat="43.52766259415869" lon="2.4560327277528935"><ele>609.0</ele><time>2026-04-02T08:47:17Z</time></trkpt><trkpt lat="43.5274785006398" lon="2.4562388866113327"><ele>609.3333333333334</ele><time>2026-04-02T08:47:18Z</time></trkpt><trkpt lat="43.52729918396045" lon="2.4564289290459467"><ele>609.6666666666667</ele><time>2026-04-02T08:47:19Z</time></trkpt><trkpt lat="43.52713376281362" lon="2.456614140683334"><ele>610.0</ele><time>2026-04-02T08:47:20Z</time></trkpt><trkpt lat="43.5269815786295" lon="2.456763573545479"><ele>611.3333333333334</ele><time>2026-04-02T08:47:21Z</time></trkpt><trkpt lat="43.52685835024634" lon="2.4569454343869883"><ele>612.6666666666666</ele><time>2026-04-02T08:47:22Z</time></trkpt><trkpt lat="43.52674357127412" lon="2.457133243257681"><ele>614.0</ele><time>2026-04-02T08:47:23Z</time></trkpt><trkpt lat="43.526634388481185" lon="2.4573019311504405"><ele>614.0</ele><time>2026-04-02T08:47:24Z</time></trkpt><trkpt lat="43.52657463208207" lon="2.457480131542437"><ele>614.0</ele><time>2026-04-02T08:47:25Z</time></trkpt><trkpt lat="43.5265299531004" lon="2.4576141838728667"><ele>614.0</ele><time>2026-04-02T08:47:26Z</time></trkpt><trkpt lat="43.52648292526752" lon="2.4576947546967163"><ele>614.0</ele><time>2026-04-02T08:47:27Z</time></trkpt><trkpt lat="43.52643684980504" lon="2.4578061164028555"><ele>614.0</ele><time>2026-04-02T08:47:29Z</time></trkpt><trkpt lat="43.52640544906861" lon="2.457882881243965"><ele>612.6</ele><time>2026-04-02T08:47:50Z</time></trkpt><trkpt lat="43.526358656906574" lon="2.457997273138932"><ele>611.2</ele><time>2026-04-02T08:47:51Z</time></trkpt><trkpt lat="43.52631046368514" lon="2.4581170208469825"><ele>609.8000000000001</ele><time>2026-04-02T08:47:52Z</time></trkpt><trkpt lat="43.5262705817028" lon="2.4582205253206593"><ele>608.4</ele><time>2026-04-02T08:47:53Z</time></trkpt><trkpt lat="43.52623223616938" lon="2.458341122950833"><ele>607.0</ele><time>2026-04-02T08:47:54Z</time></trkpt><trkpt lat="43.52621646356529" lon="2.4584783320028873"><ele>607.0</ele><time>2026-04-02T08:47:55Z</time></trkpt><trkpt lat="43.526239125382894" lon="2.458627854170198"><ele>607.0</ele><time>2026-04-02T08:47:56Z</time></trkpt><trkpt lat="43.52632654028276" lon="2.45877077930444"><ele>607.0</ele><time>2026-04-02T08:47:57Z</time></trkpt><trkpt lat="43.52642765730794" lon="2.458902649169649"><ele>607.0</ele><time>2026-04-02T08:47:58Z</time></trkpt><trkpt lat="43.526534771264316" lon="2.4590302956584837"><ele>606.8000000000001</ele><time>2026-04-02T08:47:59Z</time></trkpt><trkpt lat="43.52661751671393" lon="2.4591475519324515"><ele>606.6</ele><time>2026-04-02T08:48:00Z</time></trkpt><trkpt lat="43.52668517403116" lon="2.4592608129701516"><ele>606.4000000000001</ele><time>2026-04-02T08:48:01Z</time></trkpt><trkpt lat="43.52671709678319" lon="2.459357897499767"><ele>606.2</ele><time>2026-04-02T08:48:02Z</time></trkpt><trkpt lat="43.52669022272309" lon="2.4594555035675696"><ele>606.0</ele><time>2026-04-02T08:48:03Z</time></trkpt><trkpt lat="43.526623274681576" lon="2.459632414164303"><ele>607.5</ele><time>2026-04-02T08:48:05Z</time></trkpt><trkpt lat="43.526532335714705" lon="2.4597482296536457"><ele>609.0</ele><time>2026-04-02T08:48:06Z</time></trkpt><trkpt lat="43.52640640918983" lon="2.459851287816807"><ele>610.5</ele><time>2026-04-02T08:48:07Z</time></trkpt><trkpt lat="43.52627487342698" lon="2.4599358551910764"><ele>612.0</ele><time>2026-04-02T08:48:08Z</time></trkpt><trkpt lat="43.5261399544399" lon="2.4600233414821706"><ele>603.6666666666666</ele><time>2026-04-02T08:48:09Z</time></trkpt><trkpt lat="43.52600622865625" lon="2.4601224848322407"><ele>595.3333333333333</ele><time>2026-04-02T08:48:10Z</time></trkpt><trkpt lat="43.5258707492839" lon="2.460267201212266"><ele>587.0</ele><time>2026-04-02T08:48:11Z</time></trkpt><trkpt lat="43.5257539828947" lon="2.4604154358151047"><ele>585.25</ele><time>2026-04-02T08:48:12Z</time></trkpt><trkpt lat="43.52564052600016" lon="2.460552124572292"><ele>583.5</ele><time>2026-04-02T08:48:13Z</time></trkpt><trkpt lat="43.52554123768226" lon="2.4606912812018287"><ele>581.75</ele><time>2026-04-02T08:48:14Z</time></trkpt><trkpt lat="43.52544534500991" lon="2.460796327507155"><ele>580.0</ele><time>2026-04-02T08:48:15Z</time></trkpt><trkpt lat="43.525348703220615" lon="2.460899090958071"><ele>580.0</ele><time>2026-04-02T08:48:16Z</time></trkpt><trkpt lat="43.52527207088708" lon="2.4610220891143233"><ele>580.0</ele><time>2026-04-02T08:48:17Z</time></trkpt><trkpt lat="43.52519087325937" lon="2.4611221744005056"><ele>580.0</ele><time>2026-04-02T08:48:18Z</time></trkpt><trkpt lat="43.52509671473815" lon="2.4611950964628204"><ele>580.0</ele><time>2026-04-02T08:48:19Z</time></trkpt><trkpt lat="43.525010463778464" lon="2.4612787124831157"><ele>580.0</ele><time>2026-04-02T08:48:20Z</time></trkpt><trkpt lat="43.524937940434135" lon="2.4613436517477423"><ele>580.8</ele><time>2026-04-02T08:48:21Z</time></trkpt><trkpt lat="43.524872867429735" lon="2.4614013296453026"><ele>581.6</ele><time>2026-04-02T08:48:23Z</time></trkpt><trkpt lat="43.524812102458526" lon="2.4614573324959355"><ele>582.4</ele><time>2026-04-02T08:48:24Z</time></trkpt><trkpt lat="43.52471945536904" lon="2.461549696588169"><ele>583.2</ele><time>2026-04-02T08:48:25Z</time></trkpt><trkpt lat="43.52464628316329" lon="2.4616554887834696"><ele>584.0</ele><time>2026-04-02T08:48:26Z</time></trkpt><trkpt lat="43.52454302068387" lon="2.46173569417622"><ele>582.25</ele><time>2026-04-02T08:48:27Z</time></trkpt><trkpt lat="43.52448126562892" lon="2.461912419131931"><ele>580.5</ele><time>2026-04-02T08:48:28Z</time></trkpt><trkpt lat="43.524432026433026" lon="2.4620956670182577"><ele>578.75</ele><time>2026-04-02T08:48:29Z</time></trkpt><trkpt lat="43.524416595195746" lon="2.462300278215777"><ele>577.0</ele><time>2026-04-02T08:48:30Z</time></trkpt><trkpt lat="43.52439652779633" lon="2.462485995960274"><ele>577.0</ele><time>2026-04-02T08:48:31Z</time></trkpt><trkpt lat="43.52439753372608" lon="2.4626513877062313"><ele>577.0</ele><time>2026-04-02T08:48:32Z</time></trkpt><trkpt lat="43.52441913223889" lon="2.4628273344648792"><ele>577.0</ele><time>2026-04-02T08:48:33Z</time></trkpt><trkpt lat="43.52445231465883" lon="2.463001104740843"><ele>577.0</ele><time>2026-04-02T08:48:34Z</time></trkpt><trkpt lat="43.52449430961073" lon="2.4631364543926444"><ele>576.8000000000001</ele><time>2026-04-02T08:48:35Z</time></trkpt><trkpt lat="43.524516146416715" lon="2.4632422149208666"><ele>576.6</ele><time>2026-04-02T08:48:36Z</time></trkpt><trkpt lat="43.524526030462816" lon="2.4633281032837266"><ele>576.4000000000001</ele><time>2026-04-02T08:48:37Z</time></trkpt><trkpt lat="43.524703953819554" lon="2.4633878009855725"><ele>576.2</ele><time>2026-04-02T08:48:39Z</time></trkpt><trkpt lat="43.52477777149375" lon="2.4634219430864035"><ele>576.0</ele><time>2026-04-02T08:48:40Z</time></trkpt><trkpt lat="43.524868201787086" lon="2.4634689142276605"><ele>578.75</ele><time>2026-04-02T08:48:41Z</time></trkpt><trkpt lat="43.524992007822554" lon="2.463499565472504"><ele>581.5</ele><time>2026-04-02T08:48:42Z</time></trkpt><trkpt lat="43.52512772033882" lon="2.463473620595843"><ele>584.25</ele><time>2026-04-02T08:48:43Z</time></trkpt><trkpt lat="43.52528356285399" lon="2.463449736331411"><ele>587.0</ele><time>2026-04-02T08:48:44Z</time></trkpt><trkpt lat="43.52543251173398" lon="2.4634935735395658"><ele>592.3333333333333</ele><time>2026-04-02T08:48:45Z</time></trkpt><trkpt lat="43.52558542419713" lon="2.463503328634343"><ele>597.6666666666666</ele><time>2026-04-02T08:48:46Z</time></trkpt><trkpt lat="43.52576325125724" lon="2.4634641639601313"><ele>603.0</ele><time>2026-04-02T08:48:47Z</time></trkpt><trkpt lat="43.52592760257795" lon="2.4634318878345294"><ele>603.0</ele><time>2026-04-02T08:48:48Z</time></trkpt><trkpt lat="43.52606362838421" lon="2.463411387497667"><ele>603.0</ele><time>2026-04-02T08:48:49Z</time></trkpt><trkpt lat="43.526182887174926" lon="2.463414884584778"><ele>603.0</ele><time>2026-04-02T08:48:50Z</time></trkpt><trkpt lat="43.52628453239292" lon="2.463476088200226"><ele>603.0</ele><time>2026-04-02T08:48:51Z</time></trkpt><trkpt lat="43.5263547635394" lon="2.4635833240053358"><ele>605.75</ele><time>2026-04-02T08:48:52Z</time></trkpt><trkpt lat="43.52635133843324" lon="2.463750929768182"><ele>608.5</ele><time>2026-04-02T08:48:53Z</time></trkpt><trkpt lat="43.526338040353444" lon="2.463913080691885"><ele>611.25</ele><time>2026-04-02T08:48:54Z</time></trkpt><trkpt lat="43.5262977736235" lon="2.4641007140289357"><ele>614.0</ele><time>2026-04-02T08:48:55Z</time></trkpt><trkpt lat="43.52627403615681" lon="2.4642950071242313"><ele>614.0</ele><time>2026-04-02T08:48:56Z</time></trkpt><trkpt lat="43.52624953850397" lon="2.4644801655065116"><ele>614.0</ele><time>2026-04-02T08:48:57Z</time></trkpt><trkpt lat="43.526284465822606" lon="2.4646649380745402"><ele>614.0</ele><time>2026-04-02T08:48:58Z</time></trkpt><trkpt lat="43.5263741414161" lon="2.4648243023217176"><ele>614.0</ele><time>2026-04-02T08:48:59Z</time></trkpt><trkpt lat="43.52649162926152" lon="2.464974112150282"><ele>614.3333333333333</ele><time>2026-04-02T08:49:00Z</time></trkpt><trkpt lat="43.52663299463996" lon="2.46509171580174"><ele>614.6666666666666</ele><time>2026-04-02T08:49:01Z</time></trkpt><trkpt lat="43.526785265614684" lon="2.465208565169875"><ele>615.0</ele><time>2026-04-02T08:49:02Z</time></trkpt><trkpt lat="43.52693177947628" lon="2.4652963227543743"><ele>618.3333333333334</ele><time>2026-04-02T08:49:03Z</time></trkpt><trkpt lat="43.527090296107126" lon="2.4653354929457603"><ele>621.6666666666667</ele><time>2026-04-02T08:49:04Z</time></trkpt><trkpt lat="43.52724096779047" lon="2.4654391226600674"><ele>625.0</ele><time>2026-04-02T08:49:05Z</time></trkpt><trkpt lat="43.52738615611834" lon="2.4656025632716805"><ele>625.0</ele><time>2026-04-02T08:49:06Z</time></trkpt><trkpt lat="43.52752198457217" lon="2.4657810957947506"><ele>625.0</ele><time>2026-04-02T08:49:07Z</time></trkpt><trkpt lat="43.527649288739966" lon="2.465979536104405"><ele>625.0</ele><time>2026-04-02T08:49:08Z</time></trkpt><trkpt lat="43.52775971140025" lon="2.466184939556102"><ele>626.0</ele><time>2026-04-02T08:49:09Z</time></trkpt><trkpt lat="43.52785548402973" lon="2.466394392845919"><ele>627.0</ele><time>2026-04-02T08:49:10Z</time></trkpt><trkpt lat="43.52792856269455" lon="2.4666268152258572"><ele>628.0</ele><time>2026-04-02T08:49:11Z</time></trkpt><trkpt lat="43.527961715384464" lon="2.4668426775557504"><ele>630.25</ele><time>2026-04-02T08:49:12Z</time></trkpt><trkpt lat="43.5280072462474" lon="2.467017175876784"><ele>632.5</ele><time>2026-04-02T08:49:13Z</time></trkpt><trkpt lat="43.52805132780415" lon="2.4671701020082337"><ele>634.75</ele><time>2026-04-02T08:49:14Z</time></trkpt><trkpt lat="43.528139782056286" lon="2.4673161467955094"><ele>637.0</ele><time>2026-04-02T08:49:15Z</time></trkpt><trkpt lat="43.52827666049321" lon="2.4674401852780967"><ele>637.0</ele><time>2026-04-02T08:49:16Z</time></trkpt><trkpt lat="43.528430511466645" lon="2.467587303832174"><ele>637.0</ele><time>2026-04-02T08:49:17Z</time></trkpt><trkpt lat="43.52851687422316" lon="2.4677979102099394"><ele>637.0</ele><time>2026-04-02T08:49:18Z</time></trkpt><trkpt lat="43.528608016844416" lon="2.467979124209104"><ele>637.3333333333334</ele><time>2026-04-02T08:49:19Z</time></trkpt><trkpt lat="43.52870988446942" lon="2.46813692001904"><ele>637.6666666666666</ele><time>2026-04-02T08:49:20Z</time></trkpt><trkpt lat="43.52882942391894" lon="2.468260228132711"><ele>638.0</ele><time>2026-04-02T08:49:21Z</time></trkpt><trkpt lat="43.52897950149682" lon="2.468305127991911"><ele>642.6666666666666</ele><time>2026-04-02T08:49:22Z</time></trkpt><trkpt lat="43.52914408409173" lon="2.4683638412734017"><ele>647.3333333333334</ele><time>2026-04-02T08:49:23Z</time></trkpt><trkpt lat="43.52929566151775" lon="2.4684221123423438"><ele>652.0</ele><time>2026-04-02T08:49:24Z</time></trkpt><trkpt lat="43.52937839278481" lon="2.46857066778859"><ele>652.0</ele><time>2026-04-02T08:49:25Z</time></trkpt><trkpt lat="43.529449654950014" lon="2.4687195059290117"><ele>652.0</ele><time>2026-04-02T08:49:26Z</time></trkpt><trkpt lat="43.52954017056472" lon="2.468841078927862"><ele>652.0</ele><time>2026-04-02T08:49:27Z</time></trkpt><trkpt lat="43.52964561100621" lon="2.468954931107783"><ele>652.0</ele><time>2026-04-02T08:49:28Z</time></trkpt><trkpt lat="43.52978287655192" lon="2.46904706640567"><ele>656.0</ele><time>2026-04-02T08:49:29Z</time></trkpt><trkpt lat="43.52993654522462" lon="2.4691214903384813"><ele>660.0</ele><time>2026-04-02T08:49:30Z</time></trkpt><trkpt lat="43.530099659990086" lon="2.469160423527207"><ele>664.0</ele><time>2026-04-02T08:49:31Z</time></trkpt><trkpt lat="43.53026025849719" lon="2.469160875481285"><ele>668.3333333333334</ele><time>2026-04-02T08:49:32Z</time></trkpt><trkpt lat="43.53042018492205" lon="2.469219197213128"><ele>672.6666666666666</ele><time>2026-04-02T08:49:33Z</time></trkpt><trkpt lat="43.53057365560334" lon="2.46932069148266"><ele>677.0</ele><time>2026-04-02T08:49:34Z</time></trkpt><trkpt lat="43.53070613162437" lon="2.469419672226666"><ele>677.0</ele><time>2026-04-02T08:49:35Z</time></trkpt><trkpt lat="43.53078493930809" lon="2.4695570933756485"><ele>677.0</ele><time>2026-04-02T08:49:36Z</time></trkpt><trkpt lat="43.53082679035762" lon="2.4697087053461697"><ele>677.0</ele><time>2026-04-02T08:49:37Z</time></trkpt><trkpt lat="43.53084645541794" lon="2.469886319155713"><ele>677.0</ele><time>2026-04-02T08:49:38Z</time></trkpt><trkpt lat="43.530883790749634" lon="2.4700673397771635"><ele>674.6666666666666</ele><time>2026-04-02T08:49:39Z</time></trkpt><trkpt lat="43.53089695203542" lon="2.470260013606012"><ele>672.3333333333334</ele><time>2026-04-02T08:49:40Z</time></trkpt><trkpt lat="43.530964049075905" lon="2.470456130607178"><ele>670.0</ele><time>2026-04-02T08:49:41Z</time></trkpt><trkpt lat="43.53104089875399" lon="2.470666259693751"><ele>670.0</ele><time>2026-04-02T08:49:42Z</time></trkpt><trkpt lat="43.53113995516029" lon="2.4709126546058093"><ele>670.0</ele><time>2026-04-02T08:49:43Z</time></trkpt><trkpt lat="43.53123431351526" lon="2.471133408428457"><ele>670.0</ele><time>2026-04-02T08:49:44.001Z</time></trkpt><trkpt lat="43.53132841994998" lon="2.471368348393752"><ele>671.3333333333334</ele><time>2026-04-02T08:49:45Z</time></trkpt><trkpt lat="43.531439920850374" lon="2.4715669977331918"><ele>672.6666666666666</ele><time>2026-04-02T08:49:46Z</time></trkpt><trkpt lat="43.53155511924163" lon="2.471749623837069"><ele>674.0</ele><time>2026-04-02T08:49:47Z</time></trkpt><trkpt lat="43.53168018770063" lon="2.47189788123661"><ele>674.0</ele><time>2026-04-02T08:49:48Z</time></trkpt><trkpt lat="43.531833482751466" lon="2.471998685374709"><ele>674.0</ele><time>2026-04-02T08:49:49Z</time></trkpt><trkpt lat="43.53201531795012" lon="2.4720655614658638"><ele>674.0</ele><time>2026-04-02T08:49:50Z</time></trkpt><trkpt lat="43.532216117724445" lon="2.4720983051138785"><ele>673.6666666666666</ele><time>2026-04-02T08:49:51Z</time></trkpt><trkpt lat="43.53241895489946" lon="2.472114037028166"><ele>673.3333333333334</ele><time>2026-04-02T08:49:52Z</time></trkpt><trkpt lat="43.532599956739354" lon="2.4721068937825086"><ele>673.0</ele><time>2026-04-02T08:49:53Z</time></trkpt><trkpt lat="43.53275537056749" lon="2.4720960156644805"><ele>677.0</ele><time>2026-04-02T08:49:54Z</time></trkpt><trkpt lat="43.5328945190588" lon="2.47204451840543"><ele>681.0</ele><time>2026-04-02T08:49:55Z</time></trkpt><trkpt lat="43.53304872156007" lon="2.4719292160721156"><ele>685.0</ele><time>2026-04-02T08:49:56Z</time></trkpt><trkpt lat="43.533209709093875" lon="2.4717765581606828"><ele>685.0</ele><time>2026-04-02T08:49:57Z</time></trkpt><trkpt lat="43.533364493133554" lon="2.4716428947930416"><ele>685.0</ele><time>2026-04-02T08:49:58Z</time></trkpt><trkpt lat="43.53351618597749" lon="2.4715948169549318"><ele>685.0</ele><time>2026-04-02T08:49:59Z</time></trkpt><trkpt lat="43.53368136435277" lon="2.4715751974608566"><ele>688.0</ele><time>2026-04-02T08:50:00Z</time></trkpt><trkpt lat="43.53384585698638" lon="2.471608388829258"><ele>691.0</ele><time>2026-04-02T08:50:01Z</time></trkpt><trkpt lat="43.53398355137119" lon="2.4716969656581704"><ele>694.0</ele><time>2026-04-02T08:50:02Z</time></trkpt><trkpt lat="43.534118398484324" lon="2.4718017811952846"><ele>694.0</ele><time>2026-04-02T08:50:03Z</time></trkpt><trkpt lat="43.53423855112551" lon="2.4719048720527446"><ele>694.0</ele><time>2026-04-02T08:50:04Z</time></trkpt><trkpt lat="43.53435181061669" lon="2.471920293887286"><ele>694.0</ele><time>2026-04-02T08:50:05Z</time></trkpt><trkpt lat="43.534448706171844" lon="2.471826568264793"><ele>694.0</ele><time>2026-04-02T08:50:06Z</time></trkpt><trkpt lat="43.53455564746551" lon="2.471746067069676"><ele>692.3333333333334</ele><time>2026-04-02T08:50:07Z</time></trkpt><trkpt lat="43.534645581742026" lon="2.4715712518862007"><ele>690.6666666666666</ele><time>2026-04-02T08:50:08Z</time></trkpt><trkpt lat="43.534761454501705" lon="2.4714049034815"><ele>689.0</ele><time>2026-04-02T08:50:09Z</time></trkpt><trkpt lat="43.534890524565355" lon="2.4711455129221465"><ele>693.3333333333333</ele><time>2026-04-02T08:50:10Z</time></trkpt><trkpt lat="43.53498125921074" lon="2.470878611833874"><ele>697.6666666666666</ele><time>2026-04-02T08:50:11Z</time></trkpt><trkpt lat="43.53505383318815" lon="2.470637997406755"><ele>702.0</ele><time>2026-04-02T08:50:12Z</time></trkpt><trkpt lat="43.53513374019715" lon="2.4704058928705965"><ele>702.6666666666666</ele><time>2026-04-02T08:50:13Z</time></trkpt><trkpt lat="43.53522882715594" lon="2.4701824358279816"><ele>703.3333333333333</ele><time>2026-04-02T08:50:14Z</time></trkpt><trkpt lat="43.53531827760154" lon="2.469990001253066"><ele>704.0</ele><time>2026-04-02T08:50:15Z</time></trkpt><trkpt lat="43.535403822628524" lon="2.4698350768124646"><ele>704.0</ele><time>2026-04-02T08:50:16Z</time></trkpt><trkpt lat="43.53549009132582" lon="2.469736954871777"><ele>704.0</ele><time>2026-04-02T08:50:17Z</time></trkpt><trkpt lat="43.5355855238488" lon="2.4696624724215805"><ele>704.0</ele><time>2026-04-02T08:50:18Z</time></trkpt><trkpt lat="43.5357114653595" lon="2.4697454663898277"><ele>704.0</ele><time>2026-04-02T08:50:19Z</time></trkpt><trkpt lat="43.53582367015988" lon="2.46984030371063"><ele>704.0</ele><time>2026-04-02T08:50:20Z</time></trkpt><trkpt lat="43.53588042593921" lon="2.470012494526412"><ele>704.0</ele><time>2026-04-02T08:50:21Z</time></trkpt><trkpt lat="43.5358261564042" lon="2.4701686467162025"><ele>704.0</ele><time>2026-04-02T08:50:22Z</time></trkpt><trkpt lat="43.53580841093617" lon="2.470325695042602"><ele>704.0</ele><time>2026-04-02T08:50:23Z</time></trkpt><trkpt lat="43.53575642873089" lon="2.4704689131365014"><ele>703.75</ele><time>2026-04-02T08:50:24Z</time></trkpt><trkpt lat="43.535752817432886" lon="2.4706363039560952"><ele>703.5</ele><time>2026-04-02T08:50:25Z</time></trkpt><trkpt lat="43.5358508130895" lon="2.4707590587050503"><ele>703.25</ele><time>2026-04-02T08:50:26Z</time></trkpt><trkpt lat="43.535950191889285" lon="2.470871198953375"><ele>703.0</ele><time>2026-04-02T08:50:27Z</time></trkpt><trkpt lat="43.53605697668139" lon="2.4709997978135734"><ele>703.0</ele><time>2026-04-02T08:50:28Z</time></trkpt><trkpt lat="43.53617344454605" lon="2.4711235214772436"><ele>703.0</ele><time>2026-04-02T08:50:29Z</time></trkpt><trkpt lat="43.536332104245915" lon="2.471244854964187"><ele>703.0</ele><time>2026-04-02T08:50:30Z</time></trkpt><trkpt lat="43.53644044344476" lon="2.471391078196732"><ele>702.5</ele><time>2026-04-02T08:50:31Z</time></trkpt><trkpt lat="43.536539638012655" lon="2.4714607174698906"><ele>702.0</ele><time>2026-04-02T08:50:32Z</time></trkpt><trkpt lat="43.53664447889881" lon="2.471491091281327"><ele>701.5</ele><time>2026-04-02T08:50:33Z</time></trkpt><trkpt lat="43.536740076693654" lon="2.471382114191693"><ele>701.0</ele><time>2026-04-02T08:50:34Z</time></trkpt><trkpt lat="43.53688639863385" lon="2.471276544718319"><ele>705.3333333333333</ele><time>2026-04-02T08:50:35Z</time></trkpt><trkpt lat="43.53702349306557" lon="2.4711663776587534"><ele>709.6666666666666</ele><time>2026-04-02T08:50:36Z</time></trkpt><trkpt lat="43.53719923642441" lon="2.4709392350235637"><ele>714.0</ele><time>2026-04-02T08:50:37Z</time></trkpt><trkpt lat="43.53734370649895" lon="2.470786853621783"><ele>715.25</ele><time>2026-04-02T08:50:38Z</time></trkpt><trkpt lat="43.53748802676772" lon="2.4707098966138554"><ele>716.5</ele><time>2026-04-02T08:50:39Z</time></trkpt><trkpt lat="43.53762015938509" lon="2.470734081206841"><ele>717.75</ele><time>2026-04-02T08:50:40Z</time></trkpt><trkpt lat="43.53773306138554" lon="2.4708113836740453"><ele>719.0</ele><time>2026-04-02T08:50:41Z</time></trkpt><trkpt lat="43.53786519946776" lon="2.470911905622102"><ele>719.6666666666666</ele><time>2026-04-02T08:50:42Z</time></trkpt><trkpt lat="43.538009028631265" lon="2.4710425838625274"><ele>720.3333333333334</ele><time>2026-04-02T08:50:43Z</time></trkpt><trkpt lat="43.53814659234765" lon="2.47118589683016"><ele>721.0</ele><time>2026-04-02T08:50:44Z</time></trkpt><trkpt lat="43.53827237443184" lon="2.471330916590775"><ele>721.0</ele><time>2026-04-02T08:50:45Z</time></trkpt><trkpt lat="43.538372064652734" lon="2.471469257042845"><ele>721.0</ele><time>2026-04-02T08:50:46Z</time></trkpt><trkpt lat="43.53844795176472" lon="2.471607639615932"><ele>721.0</ele><time>2026-04-02T08:50:47Z</time></trkpt><trkpt lat="43.538497247378125" lon="2.4717477529107597"><ele>721.0</ele><time>2026-04-02T08:50:48Z</time></trkpt><trkpt lat="43.538536027395104" lon="2.4718739728614274"><ele>721.0</ele><time>2026-04-02T08:50:49Z</time></trkpt><trkpt lat="43.53855704880799" lon="2.471967963063566"><ele>721.0</ele><time>2026-04-02T08:50:50Z</time></trkpt><trkpt lat="43.53859716958491" lon="2.4720983802523198"><ele>721.0</ele><time>2026-04-02T08:50:52Z</time></trkpt><trkpt lat="43.538653479422685" lon="2.4721743046777607"><ele>721.0</ele><time>2026-04-02T08:50:54Z</time></trkpt><trkpt lat="43.53869537233736" lon="2.47225606547576"><ele>721.0</ele><time>2026-04-02T08:50:56Z</time></trkpt><trkpt lat="43.538795823314345" lon="2.472388932997593"><ele>722.25</ele><time>2026-04-02T08:50:58Z</time></trkpt><trkpt lat="43.538937115221906" lon="2.472520247849934"><ele>723.5</ele><time>2026-04-02T08:50:59Z</time></trkpt><trkpt lat="43.53902520954777" lon="2.4726018633067626"><ele>724.75</ele><time>2026-04-02T08:51:00Z</time></trkpt><trkpt lat="43.539107760505736" lon="2.472686769630444"><ele>726.0</ele><time>2026-04-02T08:51:01Z</time></trkpt><trkpt lat="43.539192322774525" lon="2.4727423710167553"><ele>726.0</ele><time>2026-04-02T08:51:02Z</time></trkpt><trkpt lat="43.539323461619986" lon="2.472712862914458"><ele>726.0</ele><time>2026-04-02T08:51:03Z</time></trkpt><trkpt lat="43.53939235430701" lon="2.4727732769132063"><ele>726.0</ele><time>2026-04-02T08:51:04Z</time></trkpt><trkpt lat="43.53948927794523" lon="2.4728634843023944"><ele>726.0</ele><time>2026-04-02T08:51:06Z</time></trkpt><trkpt lat="43.53945302443281" lon="2.4730095467592714"><ele>726.0</ele><time>2026-04-02T08:53:03Z</time></trkpt><trkpt lat="43.539556094777176" lon="2.473090964218886"><ele>724.4</ele><time>2026-04-02T08:54:38Z</time></trkpt><trkpt lat="43.53962014199984" lon="2.4731289995493952"><ele>722.8</ele><time>2026-04-02T08:54:39Z</time></trkpt><trkpt lat="43.53968888410433" lon="2.4731525651338737"><ele>721.1999999999999</ele><time>2026-04-02T08:54:40Z</time></trkpt><trkpt lat="43.53978994202371" lon="2.4731655637171457"><ele>719.5999999999999</ele><time>2026-04-02T08:54:42Z</time></trkpt><trkpt lat="43.53990145783263" lon="2.473250760042374"><ele>718.0</ele><time>2026-04-02T08:54:44Z</time></trkpt><trkpt lat="43.539966949566036" lon="2.473399049229765"><ele>718.0</ele><time>2026-04-02T08:54:45Z</time></trkpt><trkpt lat="43.54008444777929" lon="2.4735057009171943"><ele>718.0</ele><time>2026-04-02T08:54:46Z</time></trkpt><trkpt lat="43.54014446215445" lon="2.4736414973993623"><ele>718.0</ele><time>2026-04-02T08:54:47Z</time></trkpt><trkpt lat="43.54019314935238" lon="2.4737837641954155"><ele>718.0</ele><time>2026-04-02T08:54:48Z</time></trkpt><trkpt lat="43.54022948878636" lon="2.4739553105931864"><ele>720.0</ele><time>2026-04-02T08:54:49Z</time></trkpt><trkpt lat="43.54022585599362" lon="2.4741410441886917"><ele>722.0</ele><time>2026-04-02T08:54:50Z</time></trkpt><trkpt lat="43.540221328989254" lon="2.47433032307091"><ele>724.0</ele><time>2026-04-02T08:54:51Z</time></trkpt><trkpt lat="43.540213991449804" lon="2.4745250727033854"><ele>726.0</ele><time>2026-04-02T08:54:52Z</time></trkpt><trkpt lat="43.540171208440995" lon="2.4747404055909534"><ele>727.6666666666666</ele><time>2026-04-02T08:54:53Z</time></trkpt><trkpt lat="43.54011010097564" lon="2.474994724698564"><ele>729.3333333333333</ele><time>2026-04-02T08:54:54Z</time></trkpt><trkpt lat="43.54001833247874" lon="2.4752106688282507"><ele>731.0</ele><time>2026-04-02T08:54:55Z</time></trkpt><trkpt lat="43.539964560836246" lon="2.4754083932882223"><ele>729.0</ele><time>2026-04-02T08:54:56Z</time></trkpt><trkpt lat="43.539937539568335" lon="2.4756143548184726"><ele>727.0</ele><time>2026-04-02T08:54:57Z</time></trkpt><trkpt lat="43.539904792895804" lon="2.475830506996855"><ele>725.0</ele><time>2026-04-02T08:54:58Z</time></trkpt><trkpt lat="43.53990289352462" lon="2.4760774234093086"><ele>724.3333333333333</ele><time>2026-04-02T08:54:59Z</time></trkpt><trkpt lat="43.539909816863236" lon="2.476344254164041"><ele>723.6666666666666</ele><time>2026-04-02T08:55:00Z</time></trkpt><trkpt lat="43.5399061207518" lon="2.476605165505049"><ele>723.0</ele><time>2026-04-02T08:55:01Z</time></trkpt><trkpt lat="43.539898355431205" lon="2.4768555383672433"><ele>723.0</ele><time>2026-04-02T08:55:02Z</time></trkpt><trkpt lat="43.539892730092674" lon="2.4770848863849246"><ele>723.0</ele><time>2026-04-02T08:55:03Z</time></trkpt><trkpt lat="43.53989267144875" lon="2.4773265789699455"><ele>723.0</ele><time>2026-04-02T08:55:04Z</time></trkpt><trkpt lat="43.53986119809328" lon="2.477572243478754"><ele>722.0</ele><time>2026-04-02T08:55:05Z</time></trkpt><trkpt lat="43.53985705626646" lon="2.477824805863436"><ele>721.0</ele><time>2026-04-02T08:55:06Z</time></trkpt><trkpt lat="43.53983279386379" lon="2.478080754289376"><ele>720.0</ele><time>2026-04-02T08:55:07Z</time></trkpt><trkpt lat="43.53981494449401" lon="2.478345134000527"><ele>717.3333333333334</ele><time>2026-04-02T08:55:08Z</time></trkpt><trkpt lat="43.539811284159136" lon="2.4786117754092447"><ele>714.6666666666667</ele><time>2026-04-02T08:55:09Z</time></trkpt><trkpt lat="43.53983562791939" lon="2.478899895231844"><ele>712.0</ele><time>2026-04-02T08:55:10Z</time></trkpt><trkpt lat="43.539853041533334" lon="2.4791876942860793"><ele>710.6666666666667</ele><time>2026-04-02T08:55:11Z</time></trkpt><trkpt lat="43.539914077810636" lon="2.4794704889519315"><ele>709.3333333333334</ele><time>2026-04-02T08:55:12Z</time></trkpt><trkpt lat="43.53996451661733" lon="2.47974851157928"><ele>708.0</ele><time>2026-04-02T08:55:13Z</time></trkpt><trkpt lat="43.54003573068696" lon="2.479997748147163"><ele>707.3333333333334</ele><time>2026-04-02T08:55:14Z</time></trkpt><trkpt lat="43.5401242289111" lon="2.4802387994635477"><ele>706.6666666666667</ele><time>2026-04-02T08:55:15Z</time></trkpt><trkpt lat="43.54022548718627" lon="2.4804592330481348"><ele>706.0</ele><time>2026-04-02T08:55:16Z</time></trkpt><trkpt lat="43.540342711401166" lon="2.4806669619612958"><ele>708.0</ele><time>2026-04-02T08:55:17Z</time></trkpt><trkpt lat="43.54044764947256" lon="2.4808858567832925"><ele>710.0</ele><time>2026-04-02T08:55:18Z</time></trkpt><trkpt lat="43.54046790465942" lon="2.481145148762288"><ele>712.0</ele><time>2026-04-02T08:55:19Z</time></trkpt><trkpt lat="43.54048282083521" lon="2.4814022169177172"><ele>712.3333333333334</ele><time>2026-04-02T08:55:20Z</time></trkpt><trkpt lat="43.540500546283994" lon="2.4816559408770327"><ele>712.6666666666666</ele><time>2026-04-02T08:55:21Z</time></trkpt><trkpt lat="43.5405048745417" lon="2.4818574679287644"><ele>713.0</ele><time>2026-04-02T08:55:22Z</time></trkpt><trkpt lat="43.540487979791656" lon="2.482021755454959"><ele>712.75</ele><time>2026-04-02T08:55:23Z</time></trkpt><trkpt lat="43.540515857227135" lon="2.4821623151564416"><ele>712.5</ele><time>2026-04-02T08:55:24Z</time></trkpt><trkpt lat="43.540652563489154" lon="2.482211000204716"><ele>712.25</ele><time>2026-04-02T08:55:25Z</time></trkpt><trkpt lat="43.540771670970365" lon="2.4821806141964933"><ele>712.0</ele><time>2026-04-02T08:55:26Z</time></trkpt><trkpt lat="43.54091567964476" lon="2.4821953597008335"><ele>712.0</ele><time>2026-04-02T08:55:27Z</time></trkpt><trkpt lat="43.5410787658396" lon="2.4821875679879666"><ele>712.0</ele><time>2026-04-02T08:55:28Z</time></trkpt><trkpt lat="43.54125328579213" lon="2.4821388602572694"><ele>712.0</ele><time>2026-04-02T08:55:29Z</time></trkpt><trkpt lat="43.541426159813405" lon="2.4821221151582056"><ele>710.6666666666667</ele><time>2026-04-02T08:55:30Z</time></trkpt><trkpt lat="43.54160348695933" lon="2.4821045570580718"><ele>709.3333333333334</ele><time>2026-04-02T08:55:31Z</time></trkpt><trkpt lat="43.54178107943708" lon="2.482087471744788"><ele>708.0</ele><time>2026-04-02T08:55:32Z</time></trkpt><trkpt lat="43.541958567622046" lon="2.4820550319927612"><ele>713.6666666666666</ele><time>2026-04-02T08:55:33Z</time></trkpt><trkpt lat="43.5421246685557" lon="2.481998720337705"><ele>719.3333333333333</ele><time>2026-04-02T08:55:34Z</time></trkpt><trkpt lat="43.54228625608054" lon="2.481987089532403"><ele>725.0</ele><time>2026-04-02T08:55:35Z</time></trkpt><trkpt lat="43.54243629241263" lon="2.4820487877171593"><ele>723.6666666666666</ele><time>2026-04-02T08:55:36Z</time></trkpt><trkpt lat="43.542583110157906" lon="2.4821466685222418"><ele>722.3333333333334</ele><time>2026-04-02T08:55:37Z</time></trkpt><trkpt lat="43.542748579193784" lon="2.4822684981069183"><ele>721.0</ele><time>2026-04-02T08:55:38Z</time></trkpt><trkpt lat="43.54290527015288" lon="2.482391059427677"><ele>721.0</ele><time>2026-04-02T08:55:39Z</time></trkpt><trkpt lat="43.54304630955844" lon="2.4825127603345187"><ele>721.0</ele><time>2026-04-02T08:55:40Z</time></trkpt><trkpt lat="43.54318457007569" lon="2.4826410529063456"><ele>721.0</ele><time>2026-04-02T08:55:41Z</time></trkpt><trkpt lat="43.543307232409404" lon="2.482772195752119"><ele>721.0</ele><time>2026-04-02T08:55:42Z</time></trkpt><trkpt lat="43.54341293862205" lon="2.482913975425064"><ele>721.0</ele><time>2026-04-02T08:55:43Z</time></trkpt><trkpt lat="43.543575634999534" lon="2.482997240437877"><ele>721.0</ele><time>2026-04-02T08:55:44Z</time></trkpt><trkpt lat="43.54374251020115" lon="2.4830463866187915"><ele>720.0</ele><time>2026-04-02T08:55:45Z</time></trkpt><trkpt lat="43.54390120239027" lon="2.4830176615551958"><ele>719.0</ele><time>2026-04-02T08:55:46Z</time></trkpt><trkpt lat="43.544063796573454" lon="2.4829954776982532"><ele>718.0</ele><time>2026-04-02T08:55:47Z</time></trkpt><trkpt lat="43.544207667326226" lon="2.482919317068355"><ele>718.0</ele><time>2026-04-02T08:55:48Z</time></trkpt><trkpt lat="43.544319020898676" lon="2.4829005356775373"><ele>718.0</ele><time>2026-04-02T08:55:49Z</time></trkpt><trkpt lat="43.54441968057056" lon="2.48301266115402"><ele>718.0</ele><time>2026-04-02T08:55:50Z</time></trkpt><trkpt lat="43.544484253547886" lon="2.483148918909205"><ele>718.0</ele><time>2026-04-02T08:55:51Z</time></trkpt><trkpt lat="43.544537111318284" lon="2.4832999223488623"><ele>716.75</ele><time>2026-04-02T08:55:52Z</time></trkpt><trkpt lat="43.544522659806304" lon="2.4834788216962664"><ele>715.5</ele><time>2026-04-02T08:55:53Z</time></trkpt><trkpt lat="43.54448168905703" lon="2.483647141465785"><ele>714.25</ele><time>2026-04-02T08:55:54Z</time></trkpt><trkpt lat="43.54433967560263" lon="2.4837319255704635"><ele>713.0</ele><time>2026-04-02T08:55:55Z</time></trkpt><trkpt lat="43.54418188426649" lon="2.483811793697854"><ele>713.0</ele><time>2026-04-02T08:55:56Z</time></trkpt><trkpt lat="43.54401934770902" lon="2.4839193385854204"><ele>713.0</ele><time>2026-04-02T08:55:57Z</time></trkpt><trkpt lat="43.54385135856951" lon="2.4839733007169214"><ele>713.0</ele><time>2026-04-02T08:55:58Z</time></trkpt><trkpt lat="43.54370722458392" lon="2.484043994363579"><ele>711.0</ele><time>2026-04-02T08:55:59Z</time></trkpt><trkpt lat="43.5435815031321" lon="2.4841554848374208"><ele>709.0</ele><time>2026-04-02T08:56:00Z</time></trkpt><trkpt lat="43.54347800597645" lon="2.484322301231506"><ele>707.0</ele><time>2026-04-02T08:56:01Z</time></trkpt><trkpt lat="43.543418375315696" lon="2.484538977692432"><ele>710.0</ele><time>2026-04-02T08:56:02Z</time></trkpt><trkpt lat="43.54335632482022" lon="2.4847877354217354"><ele>713.0</ele><time>2026-04-02T08:56:03Z</time></trkpt><trkpt lat="43.54330679865432" lon="2.485056894880774"><ele>716.0</ele><time>2026-04-02T08:56:04Z</time></trkpt><trkpt lat="43.54327288890395" lon="2.4853357734137305"><ele>717.3333333333333</ele><time>2026-04-02T08:56:05Z</time></trkpt><trkpt lat="43.54322023621615" lon="2.4855976957066805"><ele>718.6666666666666</ele><time>2026-04-02T08:56:06Z</time></trkpt><trkpt lat="43.5431848359404" lon="2.485865805817317"><ele>720.0</ele><time>2026-04-02T08:56:07Z</time></trkpt><trkpt lat="43.54317637622547" lon="2.486131839628661"><ele>721.6666666666666</ele><time>2026-04-02T08:56:08Z</time></trkpt><trkpt lat="43.543161299449125" lon="2.486377595183258"><ele>723.3333333333333</ele><time>2026-04-02T08:56:09Z</time></trkpt><trkpt lat="43.543136396057804" lon="2.4866330723016756"><ele>725.0</ele><time>2026-04-02T08:56:10Z</time></trkpt><trkpt lat="43.54306685221603" lon="2.486900791209065"><ele>725.6666666666666</ele><time>2026-04-02T08:56:11Z</time></trkpt><trkpt lat="43.54301206284522" lon="2.4871835465311083"><ele>726.3333333333334</ele><time>2026-04-02T08:56:12Z</time></trkpt><trkpt lat="43.542981122268934" lon="2.4874673113842376"><ele>727.0</ele><time>2026-04-02T08:56:13Z</time></trkpt><trkpt lat="43.5429446356847" lon="2.4877349201021257"><ele>727.0</ele><time>2026-04-02T08:56:14Z</time></trkpt><trkpt lat="43.54288564192986" lon="2.487990146174906"><ele>727.0</ele><time>2026-04-02T08:56:15Z</time></trkpt><trkpt lat="43.542793048374435" lon="2.4882278935132023"><ele>727.0</ele><time>2026-04-02T08:56:16Z</time></trkpt><trkpt lat="43.542702812876065" lon="2.488441040490267"><ele>725.6666666666667</ele><time>2026-04-02T08:56:17Z</time></trkpt><trkpt lat="43.542630893602905" lon="2.488644927784756"><ele>724.3333333333334</ele><time>2026-04-02T08:56:18Z</time></trkpt><trkpt lat="43.542565294496114" lon="2.488829572543857"><ele>723.0</ele><time>2026-04-02T08:56:19Z</time></trkpt><trkpt lat="43.542552499213706" lon="2.48901793712356"><ele>723.0</ele><time>2026-04-02T08:56:20Z</time></trkpt><trkpt lat="43.542617763000216" lon="2.489215684997441"><ele>723.0</ele><time>2026-04-02T08:56:21Z</time></trkpt><trkpt lat="43.54268363551143" lon="2.4894258680024386"><ele>723.0</ele><time>2026-04-02T08:56:22Z</time></trkpt><trkpt lat="43.54273669352844" lon="2.4896567231747135"><ele>722.6666666666666</ele><time>2026-04-02T08:56:23Z</time></trkpt><trkpt lat="43.54278562218501" lon="2.489895701567066"><ele>722.3333333333333</ele><time>2026-04-02T08:56:24Z</time></trkpt><trkpt lat="43.54282691824214" lon="2.4901212807013806"><ele>722.0</ele><time>2026-04-02T08:56:25Z</time></trkpt><trkpt lat="43.542875486605915" lon="2.4903140053771757"><ele>722.25</ele><time>2026-04-02T08:56:26Z</time></trkpt><trkpt lat="43.54295401797048" lon="2.4904819747112485"><ele>722.5</ele><time>2026-04-02T08:56:27Z</time></trkpt><trkpt lat="43.543065713310476" lon="2.4906138210509674"><ele>722.75</ele><time>2026-04-02T08:56:28Z</time></trkpt><trkpt lat="43.54320351899541" lon="2.4906965320918495"><ele>723.0</ele><time>2026-04-02T08:56:29Z</time></trkpt><trkpt lat="43.54331271636266" lon="2.490759771782444"><ele>723.0</ele><time>2026-04-02T08:56:30Z</time></trkpt><trkpt lat="43.54338502066226" lon="2.49090786911514"><ele>723.0</ele><time>2026-04-02T08:56:31Z</time></trkpt><trkpt lat="43.54342249201075" lon="2.491091675417595"><ele>723.0</ele><time>2026-04-02T08:56:32Z</time></trkpt><trkpt lat="43.5434612519512" lon="2.4912993875729375"><ele>723.0</ele><time>2026-04-02T08:56:33Z</time></trkpt><trkpt lat="43.5434854021042" lon="2.4915308071903333"><ele>722.6666666666666</ele><time>2026-04-02T08:56:34Z</time></trkpt><trkpt lat="43.54348424281558" lon="2.4917722801920497"><ele>722.3333333333333</ele><time>2026-04-02T08:56:35Z</time></trkpt><trkpt lat="43.54347873612047" lon="2.492017388227464"><ele>722.0</ele><time>2026-04-02T08:56:36Z</time></trkpt><trkpt lat="43.543476185803684" lon="2.4922455772362935"><ele>722.0</ele><time>2026-04-02T08:56:37Z</time></trkpt><trkpt lat="43.54348053430442" lon="2.492446034432126"><ele>722.0</ele><time>2026-04-02T08:56:38Z</time></trkpt><trkpt lat="43.543498041951636" lon="2.492611409044148"><ele>722.0</ele><time>2026-04-02T08:56:39Z</time></trkpt><trkpt lat="43.54354121233674" lon="2.492732015850974"><ele>722.0</ele><time>2026-04-02T08:56:40Z</time></trkpt><trkpt lat="43.54362375880273" lon="2.492803230983958"><ele>722.0</ele><time>2026-04-02T08:56:41Z</time></trkpt><trkpt lat="43.543712071938174" lon="2.4928061214229973"><ele>722.0</ele><time>2026-04-02T08:56:42Z</time></trkpt><trkpt lat="43.54380587280956" lon="2.492743776200613"><ele>722.0</ele><time>2026-04-02T08:56:43Z</time></trkpt><trkpt lat="43.54389615178941" lon="2.492623121670341"><ele>722.0</ele><time>2026-04-02T08:56:44Z</time></trkpt><trkpt lat="43.5439954896461" lon="2.492479676017336"><ele>724.8</ele><time>2026-04-02T08:56:45Z</time></trkpt><trkpt lat="43.54410379781336" lon="2.492405756499978"><ele>727.6</ele><time>2026-04-02T08:56:46Z</time></trkpt><trkpt lat="43.54420628618676" lon="2.4924749513543847"><ele>730.4</ele><time>2026-04-02T08:56:47Z</time></trkpt><trkpt lat="43.54426640703047" lon="2.4925668155982192"><ele>733.1999999999999</ele><time>2026-04-02T08:56:48Z</time></trkpt><trkpt lat="43.54429074492614" lon="2.492687259237473"><ele>736.0</ele><time>2026-04-02T08:56:49Z</time></trkpt><trkpt lat="43.54434031863606" lon="2.492845669110247"><ele>735.5</ele><time>2026-04-02T08:56:50Z</time></trkpt><trkpt lat="43.54442273750854" lon="2.4930179837637945"><ele>735.0</ele><time>2026-04-02T08:56:51Z</time></trkpt><trkpt lat="43.54450383132976" lon="2.493182373111358"><ele>734.5</ele><time>2026-04-02T08:56:52Z</time></trkpt><trkpt lat="43.54456624733643" lon="2.493343134359809"><ele>734.0</ele><time>2026-04-02T08:56:53Z</time></trkpt><trkpt lat="43.54458681238582" lon="2.493508510123922"><ele>734.0</ele><time>2026-04-02T08:56:54Z</time></trkpt><trkpt lat="43.54452965210855" lon="2.493670286749599"><ele>734.0</ele><time>2026-04-02T08:56:55Z</time></trkpt><trkpt lat="43.544470436537566" lon="2.493841365390658"><ele>734.0</ele><time>2026-04-02T08:56:56Z</time></trkpt><trkpt lat="43.544412542180254" lon="2.4940256790797855"><ele>734.0</ele><time>2026-04-02T08:56:57Z</time></trkpt><trkpt lat="43.544364215187755" lon="2.494207644389966"><ele>734.0</ele><time>2026-04-02T08:56:58Z</time></trkpt><trkpt lat="43.54435854337243" lon="2.4943955889015457"><ele>734.0</ele><time>2026-04-02T08:56:59Z</time></trkpt><trkpt lat="43.54439739334267" lon="2.4945850454525473"><ele>734.0</ele><time>2026-04-02T08:57:00Z</time></trkpt><trkpt lat="43.54446479459148" lon="2.494753330338393"><ele>734.0</ele><time>2026-04-02T08:57:01Z</time></trkpt><trkpt lat="43.54456135278842" lon="2.494889003736991"><ele>735.0</ele><time>2026-04-02T08:57:02Z</time></trkpt><trkpt lat="43.544658894881984" lon="2.4950258812124315"><ele>736.0</ele><time>2026-04-02T08:57:03Z</time></trkpt><trkpt lat="43.54470751770649" lon="2.495193180474421"><ele>737.0</ele><time>2026-04-02T08:57:04Z</time></trkpt><trkpt lat="43.54464442670706" lon="2.4953658213842895"><ele>738.0</ele><time>2026-04-02T08:57:05Z</time></trkpt><trkpt lat="43.54463620133138" lon="2.4955496554165033"><ele>738.0</ele><time>2026-04-02T08:57:06Z</time></trkpt><trkpt lat="43.5446242076989" lon="2.495702186183603"><ele>738.0</ele><time>2026-04-02T08:57:07Z</time></trkpt><trkpt lat="43.54466774105274" lon="2.4958381422141365"><ele>738.0</ele><time>2026-04-02T08:57:08Z</time></trkpt><trkpt lat="43.544715088841144" lon="2.495948732842823"><ele>738.0</ele><time>2026-04-02T08:57:09Z</time></trkpt><trkpt lat="43.544854445763015" lon="2.495966653444546"><ele>738.0</ele><time>2026-04-02T08:57:10Z</time></trkpt><trkpt lat="43.5449829664341" lon="2.4959782757782936"><ele>738.0</ele><time>2026-04-02T08:57:11Z</time></trkpt><trkpt lat="43.545115854037554" lon="2.495968770536085"><ele>738.0</ele><time>2026-04-02T08:57:12Z</time></trkpt><trkpt lat="43.545213190146576" lon="2.49601158693463"><ele>738.0</ele><time>2026-04-02T08:57:13Z</time></trkpt><trkpt lat="43.545297933729586" lon="2.4960324567032757"><ele>738.0</ele><time>2026-04-02T08:57:14Z</time></trkpt><trkpt lat="43.54537228785275" lon="2.496041700737605"><ele>738.0</ele><time>2026-04-02T08:57:15Z</time></trkpt><trkpt lat="43.54543568212387" lon="2.4960761847146813"><ele>738.0</ele><time>2026-04-02T08:57:16Z</time></trkpt><trkpt lat="43.54549719925839" lon="2.4961021195766886"><ele>738.0</ele><time>2026-04-02T08:57:17Z</time></trkpt><trkpt lat="43.54556190544817" lon="2.496119355865058"><ele>738.0</ele><time>2026-04-02T08:57:18Z</time></trkpt><trkpt lat="43.545633111463395" lon="2.496122171481562"><ele>738.0</ele><time>2026-04-02T08:57:19Z</time></trkpt><trkpt lat="43.545699489811774" lon="2.4961227407903936"><ele>738.0</ele><time>2026-04-02T08:57:20Z</time></trkpt><trkpt lat="43.54577972252879" lon="2.4961565348954746"><ele>738.5</ele><time>2026-04-02T08:57:22Z</time></trkpt><trkpt lat="43.54584538457871" lon="2.496172813652114"><ele>739.0</ele><time>2026-04-02T08:57:25Z</time></trkpt><trkpt lat="43.54576349494228" lon="2.496120257458138"><ele>739.5</ele><time>2026-04-02T08:57:30Z</time></trkpt><trkpt lat="43.545698995940455" lon="2.496138706307401"><ele>740.0</ele><time>2026-04-02T08:57:31Z</time></trkpt><trkpt lat="43.54560886169661" lon="2.496137070798614"><ele>740.5</ele><time>2026-04-02T08:57:32Z</time></trkpt><trkpt lat="43.54550082631857" lon="2.4961155305462213"><ele>741.0</ele><time>2026-04-02T08:57:33Z</time></trkpt><trkpt lat="43.54539039868239" lon="2.4960769103294256"><ele>740.25</ele><time>2026-04-02T08:57:34Z</time></trkpt><trkpt lat="43.54525522657682" lon="2.4960174038566754"><ele>739.5</ele><time>2026-04-02T08:57:35Z</time></trkpt><trkpt lat="43.545127830868076" lon="2.4959737696237436"><ele>738.75</ele><time>2026-04-02T08:57:36Z</time></trkpt><trkpt lat="43.54498492233198" lon="2.4959572503256076"><ele>738.0</ele><time>2026-04-02T08:57:37Z</time></trkpt><trkpt lat="43.544877040583536" lon="2.4959514689136504"><ele>738.0</ele><time>2026-04-02T08:57:38Z</time></trkpt><trkpt lat="43.54479447375199" lon="2.495925710962097"><ele>738.0</ele><time>2026-04-02T08:57:39Z</time></trkpt><trkpt lat="43.54473325217401" lon="2.4958775200110868"><ele>738.0</ele><time>2026-04-02T08:57:40Z</time></trkpt><trkpt lat="43.54466327895403" lon="2.495770531922536"><ele>738.0</ele><time>2026-04-02T08:57:42Z</time></trkpt><trkpt lat="43.54458858749231" lon="2.4957447344295973"><ele>738.0</ele><time>2026-04-02T08:57:45Z</time></trkpt><trkpt lat="43.54451527811505" lon="2.4958160213282725"><ele>738.0</ele><time>2026-04-02T08:57:47Z</time></trkpt><trkpt lat="43.54445058855221" lon="2.4958748266761575"><ele>738.3333333333334</ele><time>2026-04-02T08:57:49Z</time></trkpt><trkpt lat="43.54438020222387" lon="2.495904165661992"><ele>738.6666666666666</ele><time>2026-04-02T08:57:51Z</time></trkpt><trkpt lat="43.544301543571606" lon="2.495944763632035"><ele>739.0</ele><time>2026-04-02T08:57:53Z</time></trkpt><trkpt lat="43.54425773402961" lon="2.4960092934236098"><ele>739.3333333333333</ele><time>2026-04-02T08:57:56Z</time></trkpt><trkpt lat="43.54419934603426" lon="2.4960473187236856"><ele>739.6666666666666</ele><time>2026-04-02T08:57:58Z</time></trkpt><trkpt lat="43.544110936303895" lon="2.496075507127763"><ele>740.0</ele><time>2026-04-02T08:58:00Z</time></trkpt><trkpt lat="43.544023456645085" lon="2.4960626756699695"><ele>740.0</ele><time>2026-04-02T08:58:03Z</time></trkpt><trkpt lat="43.54395195902268" lon="2.496065950933054"><ele>740.0</ele><time>2026-04-02T08:58:05Z</time></trkpt><trkpt lat="43.54397990477286" lon="2.4961541341042044"><ele>740.0</ele><time>2026-04-02T08:58:08Z</time></trkpt><trkpt lat="43.54404726622418" lon="2.4960814247446708"><ele>740.0</ele><time>2026-04-02T08:58:10Z</time></trkpt><trkpt lat="43.54413862566456" lon="2.49607142384183"><ele>740.0</ele><time>2026-04-02T08:58:12Z</time></trkpt><trkpt lat="43.54423088770075" lon="2.4960255226330874"><ele>740.0</ele><time>2026-04-02T08:58:14Z</time></trkpt><trkpt lat="43.54428310135334" lon="2.495972305219804"><ele>740.0</ele><time>2026-04-02T08:58:15Z</time></trkpt><trkpt lat="43.54439131016152" lon="2.4958777432222226"><ele>740.0</ele><time>2026-04-02T08:58:17Z</time></trkpt><trkpt lat="43.54447598379475" lon="2.4958620403257163"><ele>740.0</ele><time>2026-04-02T08:58:19Z</time></trkpt><trkpt lat="43.54454545832975" lon="2.4958195526807727"><ele>740.0</ele><time>2026-04-02T08:58:24Z</time></trkpt><trkpt lat="43.54461375267652" lon="2.495827696437305"><ele>740.0</ele><time>2026-04-02T08:58:27Z</time></trkpt><trkpt lat="43.54467747176511" lon="2.495818170192155"><ele>740.0</ele><time>2026-04-02T08:58:30Z</time></trkpt><trkpt lat="43.54464947701813" lon="2.495681615235232"><ele>740.0</ele><time>2026-04-02T08:58:33Z</time></trkpt><trkpt lat="43.54458898226965" lon="2.495724871822431"><ele>740.0</ele><time>2026-04-02T08:58:35Z</time></trkpt><trkpt lat="43.54453770885303" lon="2.4957969617702656"><ele>740.0</ele><time>2026-04-02T08:58:38Z</time></trkpt><trkpt lat="43.544467134611985" lon="2.4958330504288897"><ele>740.0</ele><time>2026-04-02T08:58:42Z</time></trkpt><trkpt lat="43.544404977547366" lon="2.4958571490594736"><ele>740.0</ele><time>2026-04-02T08:58:46Z</time></trkpt><trkpt lat="43.54434169568191" lon="2.495876354999164"><ele>740.0</ele><time>2026-04-02T08:58:50Z</time></trkpt><trkpt lat="43.54444507780133" lon="2.4958558761547147"><ele>739.6</ele><time>2026-04-02T08:59:09Z</time></trkpt><trkpt lat="43.54454891703333" lon="2.4958077067358513"><ele>739.2</ele><time>2026-04-02T08:59:11Z</time></trkpt><trkpt lat="43.54461422626206" lon="2.495817143853269"><ele>738.8</ele><time>2026-04-02T08:59:13Z</time></trkpt><trkpt lat="43.54473242883317" lon="2.4958706814304605"><ele>738.4</ele><time>2026-04-02T08:59:15Z</time></trkpt><trkpt lat="43.54482346270871" lon="2.4959136461418114"><ele>738.0</ele><time>2026-04-02T08:59:16Z</time></trkpt><trkpt lat="43.54492130316397" lon="2.495953045693659"><ele>738.0</ele><time>2026-04-02T08:59:17Z</time></trkpt><trkpt lat="43.54503732743934" lon="2.495970097020846"><ele>738.0</ele><time>2026-04-02T08:59:18Z</time></trkpt><trkpt lat="43.545161735741644" lon="2.495979455640688"><ele>738.0</ele><time>2026-04-02T08:59:19Z</time></trkpt><trkpt lat="43.54528506423666" lon="2.496006161596713"><ele>738.0</ele><time>2026-04-02T08:59:20Z</time></trkpt><trkpt lat="43.54539490463909" lon="2.4960619549297447"><ele>738.5999999999999</ele><time>2026-04-02T08:59:21Z</time></trkpt><trkpt lat="43.545504343180625" lon="2.496113019648282"><ele>739.1999999999999</ele><time>2026-04-02T08:59:22Z</time></trkpt><trkpt lat="43.545611226978544" lon="2.496135725627562"><ele>739.8</ele><time>2026-04-02T08:59:23Z</time></trkpt><trkpt lat="43.54572042769872" lon="2.496134659963648"><ele>740.4</ele><time>2026-04-02T08:59:24Z</time></trkpt><trkpt lat="43.545822609654955" lon="2.496126862294631"><ele>741.0</ele><time>2026-04-02T08:59:25Z</time></trkpt><trkpt lat="43.545926515061396" lon="2.496132413867491"><ele>741.0</ele><time>2026-04-02T08:59:26Z</time></trkpt><trkpt lat="43.546028053622905" lon="2.496149297208632"><ele>741.0</ele><time>2026-04-02T08:59:27Z</time></trkpt><trkpt lat="43.546133615832765" lon="2.496200660659658"><ele>741.0</ele><time>2026-04-02T08:59:28Z</time></trkpt><trkpt lat="43.54622366229065" lon="2.4963016473574147"><ele>741.0</ele><time>2026-04-02T08:59:29Z</time></trkpt><trkpt lat="43.546295974655656" lon="2.4964327732904614"><ele>738.75</ele><time>2026-04-02T08:59:30Z</time></trkpt><trkpt lat="43.546360603822144" lon="2.4965667195325514"><ele>736.5</ele><time>2026-04-02T08:59:31Z</time></trkpt><trkpt lat="43.54643866163988" lon="2.4966807127665285"><ele>734.25</ele><time>2026-04-02T08:59:32Z</time></trkpt><trkpt lat="43.54653953086818" lon="2.49675714469987"><ele>732.0</ele><time>2026-04-02T08:59:33Z</time></trkpt><trkpt lat="43.54667019933068" lon="2.496774554259946"><ele>732.0</ele><time>2026-04-02T08:59:34Z</time></trkpt><trkpt lat="43.546801920485464" lon="2.4967615158842342"><ele>732.0</ele><time>2026-04-02T08:59:35Z</time></trkpt><trkpt lat="43.54693641196725" lon="2.4967016485946085"><ele>732.0</ele><time>2026-04-02T08:59:36Z</time></trkpt><trkpt lat="43.547050884703495" lon="2.4965836653289184"><ele>732.0</ele><time>2026-04-02T08:59:37Z</time></trkpt><trkpt lat="43.54717825832081" lon="2.496480620819846"><ele>732.3333333333334</ele><time>2026-04-02T08:59:38Z</time></trkpt><trkpt lat="43.54729281641712" lon="2.4963351748520766"><ele>732.6666666666667</ele><time>2026-04-02T08:59:39Z</time></trkpt><trkpt lat="43.54740010584651" lon="2.496193212103822"><ele>733.0</ele><time>2026-04-02T08:59:40Z</time></trkpt><trkpt lat="43.54750899791899" lon="2.496051128955394"><ele>733.0</ele><time>2026-04-02T08:59:41Z</time></trkpt><trkpt lat="43.547624554709834" lon="2.495904694822505"><ele>733.0</ele><time>2026-04-02T08:59:42Z</time></trkpt><trkpt lat="43.5477430277628" lon="2.4957419362833506"><ele>733.0</ele><time>2026-04-02T08:59:43Z</time></trkpt><trkpt lat="43.54785405643612" lon="2.4955653332791607"><ele>732.6666666666667</ele><time>2026-04-02T08:59:44Z</time></trkpt><trkpt lat="43.54795282187289" lon="2.495374001976692"><ele>732.3333333333334</ele><time>2026-04-02T08:59:45Z</time></trkpt><trkpt lat="43.54803828653852" lon="2.4951718642638228"><ele>732.0</ele><time>2026-04-02T08:59:46Z</time></trkpt><trkpt lat="43.548132173167836" lon="2.494993159520797"><ele>732.0</ele><time>2026-04-02T08:59:47Z</time></trkpt><trkpt lat="43.54821313653142" lon="2.494812849633198"><ele>732.0</ele><time>2026-04-02T08:59:48Z</time></trkpt><trkpt lat="43.548264585004915" lon="2.4946531246025114"><ele>732.0</ele><time>2026-04-02T08:59:49Z</time></trkpt><trkpt lat="43.54835920849596" lon="2.494522171031965"><ele>732.0</ele><time>2026-04-02T08:59:50Z</time></trkpt><trkpt lat="43.54848746738287" lon="2.4944511341687976"><ele>733.75</ele><time>2026-04-02T08:59:51Z</time></trkpt><trkpt lat="43.54861000546053" lon="2.494448690521103"><ele>735.5</ele><time>2026-04-02T08:59:52Z</time></trkpt><trkpt lat="43.548743127520375" lon="2.4944509250111038"><ele>737.25</ele><time>2026-04-02T08:59:53Z</time></trkpt><trkpt lat="43.54887490513802" lon="2.494463912217147"><ele>739.0</ele><time>2026-04-02T08:59:54Z</time></trkpt><trkpt lat="43.5489915516842" lon="2.4945284657206157"><ele>738.0</ele><time>2026-04-02T08:59:55Z</time></trkpt><trkpt lat="43.549074832749604" lon="2.4946606038927177"><ele>737.0</ele><time>2026-04-02T08:59:56Z</time></trkpt><trkpt lat="43.54915303067331" lon="2.4948219180871445"><ele>736.0</ele><time>2026-04-02T08:59:57Z</time></trkpt><trkpt lat="43.54921079522776" lon="2.4950451117940635"><ele>735.0</ele><time>2026-04-02T08:59:58Z</time></trkpt><trkpt lat="43.549233544121684" lon="2.4952736234120168"><ele>734.25</ele><time>2026-04-02T08:59:59Z</time></trkpt><trkpt lat="43.54926975874114" lon="2.495478832362299"><ele>733.5</ele><time>2026-04-02T09:00:00Z</time></trkpt><trkpt lat="43.54927536350401" lon="2.495659001548973"><ele>732.75</ele><time>2026-04-02T09:00:01Z</time></trkpt><trkpt lat="43.54929963479946" lon="2.495803021811286"><ele>732.0</ele><time>2026-04-02T09:00:02Z</time></trkpt><trkpt lat="43.54934221516091" lon="2.4958962807860146"><ele>732.0</ele><time>2026-04-02T09:00:03Z</time></trkpt><trkpt lat="43.54940861294379" lon="2.4959587671490597"><ele>732.0</ele><time>2026-04-02T09:00:04Z</time></trkpt><trkpt lat="43.54949951191982" lon="2.495966077852801"><ele>732.0</ele><time>2026-04-02T09:00:05Z</time></trkpt><trkpt lat="43.549592094543506" lon="2.4959107748894835"><ele>732.0</ele><time>2026-04-02T09:00:06Z</time></trkpt><trkpt lat="43.549716327481676" lon="2.495861197947555"><ele>732.0</ele><time>2026-04-02T09:00:07Z</time></trkpt><trkpt lat="43.54982811432949" lon="2.4957942614790305"><ele>732.0</ele><time>2026-04-02T09:00:08Z</time></trkpt><trkpt lat="43.54991781272028" lon="2.4957700180535465"><ele>732.0</ele><time>2026-04-02T09:00:09Z</time></trkpt><trkpt lat="43.55001225371015" lon="2.495761115112125"><ele>732.0</ele><time>2026-04-02T09:00:10Z</time></trkpt><trkpt lat="43.550156229467675" lon="2.4957492909235524"><ele>732.0</ele><time>2026-04-02T09:00:11Z</time></trkpt><trkpt lat="43.55033960279358" lon="2.4957347472191898"><ele>732.5</ele><time>2026-04-02T09:00:12Z</time></trkpt><trkpt lat="43.55047662669358" lon="2.495719247778715"><ele>733.0</ele><time>2026-04-02T09:00:13Z</time></trkpt><trkpt lat="43.55061235201605" lon="2.4956913161144207"><ele>733.5</ele><time>2026-04-02T09:00:14Z</time></trkpt><trkpt lat="43.55074072030669" lon="2.4956987014998013"><ele>734.0</ele><time>2026-04-02T09:00:15Z</time></trkpt><trkpt lat="43.55085971783123" lon="2.495693890021107"><ele>734.0</ele><time>2026-04-02T09:00:16Z</time></trkpt><trkpt lat="43.55094883963238" lon="2.4957020756127077"><ele>734.0</ele><time>2026-04-02T09:00:17Z</time></trkpt><trkpt lat="43.551029674016064" lon="2.495723001385116"><ele>734.0</ele><time>2026-04-02T09:00:18Z</time></trkpt><trkpt lat="43.551082177235116" lon="2.495864013156163"><ele>734.0</ele><time>2026-04-02T09:00:20Z</time></trkpt><trkpt lat="43.55107068995777" lon="2.4959798772284727"><ele>734.0</ele><time>2026-04-02T09:00:21Z</time></trkpt><trkpt lat="43.551023307551645" lon="2.496117045835522"><ele>734.0</ele><time>2026-04-02T09:00:22Z</time></trkpt><trkpt lat="43.550982488036546" lon="2.4962251128216626"><ele>734.0</ele><time>2026-04-02T09:00:23Z</time></trkpt><trkpt lat="43.55096146929427" lon="2.496332381197546"><ele>734.0</ele><time>2026-04-02T09:00:24Z</time></trkpt><trkpt lat="43.55093245324384" lon="2.496487807369592"><ele>734.0</ele><time>2026-04-02T09:00:25Z</time></trkpt><trkpt lat="43.550867084567265" lon="2.4967108586260562"><ele>734.0</ele><time>2026-04-02T09:00:26Z</time></trkpt><trkpt lat="43.550798291097365" lon="2.4969214710475858"><ele>734.0</ele><time>2026-04-02T09:00:27Z</time></trkpt><trkpt lat="43.550743824997234" lon="2.4971743356760787"><ele>734.0</ele><time>2026-04-02T09:00:28Z</time></trkpt><trkpt lat="43.5506869601917" lon="2.497424300645485"><ele>733.6666666666666</ele><time>2026-04-02T09:00:29Z</time></trkpt><trkpt lat="43.55061702324611" lon="2.4976897147265222"><ele>733.3333333333334</ele><time>2026-04-02T09:00:30Z</time></trkpt><trkpt lat="43.55055640555666" lon="2.497952157812126"><ele>733.0</ele><time>2026-04-02T09:00:31Z</time></trkpt><trkpt lat="43.55050234492931" lon="2.4981927388759053"><ele>732.3333333333334</ele><time>2026-04-02T09:00:32Z</time></trkpt><trkpt lat="43.55045569229941" lon="2.4984106717465586"><ele>731.6666666666666</ele><time>2026-04-02T09:00:33Z</time></trkpt><trkpt lat="43.550401937614886" lon="2.498607255950081"><ele>731.0</ele><time>2026-04-02T09:00:34Z</time></trkpt><trkpt lat="43.55030169054981" lon="2.4987435496833807"><ele>731.0</ele><time>2026-04-02T09:00:35Z</time></trkpt><trkpt lat="43.550241743236555" lon="2.4988729826769385"><ele>731.0</ele><time>2026-04-02T09:00:36Z</time></trkpt><trkpt lat="43.55014120137716" lon="2.4988609407643225"><ele>731.0</ele><time>2026-04-02T09:00:37Z</time></trkpt><trkpt lat="43.55006207775499" lon="2.4989050513759468"><ele>731.0</ele><time>2026-04-02T09:00:38Z</time></trkpt><trkpt lat="43.54994739706807" lon="2.498945646895367"><ele>731.0</ele><time>2026-04-02T09:00:39Z</time></trkpt><trkpt lat="43.54982466919827" lon="2.499024375133087"><ele>731.0</ele><time>2026-04-02T09:00:40Z</time></trkpt><trkpt lat="43.54971531143642" lon="2.4991536236886978"><ele>731.0</ele><time>2026-04-02T09:00:41Z</time></trkpt><trkpt lat="43.54965144840578" lon="2.4993363320463113"><ele>731.0</ele><time>2026-04-02T09:00:42Z</time></trkpt><trkpt lat="43.54958468146641" lon="2.499525555161324"><ele>731.0</ele><time>2026-04-02T09:00:43Z</time></trkpt><trkpt lat="43.54952065940061" lon="2.4997039233341156"><ele>730.75</ele><time>2026-04-02T09:00:44Z</time></trkpt><trkpt lat="43.54943748883752" lon="2.499853553199475"><ele>730.5</ele><time>2026-04-02T09:00:45Z</time></trkpt><trkpt lat="43.54934151316258" lon="2.4999745840289536"><ele>730.25</ele><time>2026-04-02T09:00:46Z</time></trkpt><trkpt lat="43.54922298028982" lon="2.500069843476922"><ele>730.0</ele><time>2026-04-02T09:00:47Z</time></trkpt><trkpt lat="43.54908648085669" lon="2.5001214695373317"><ele>730.0</ele><time>2026-04-02T09:00:48Z</time></trkpt><trkpt lat="43.54894195763176" lon="2.5001732872792"><ele>730.0</ele><time>2026-04-02T09:00:49Z</time></trkpt><trkpt lat="43.54880963724736" lon="2.5002318913544266"><ele>730.0</ele><time>2026-04-02T09:00:50Z</time></trkpt><trkpt lat="43.548670197469775" lon="2.5003052289514045"><ele>730.0</ele><time>2026-04-02T09:00:51Z</time></trkpt><trkpt lat="43.54855990006613" lon="2.5004070808296137"><ele>731.0</ele><time>2026-04-02T09:00:52Z</time></trkpt><trkpt lat="43.548464333729406" lon="2.500550832167946"><ele>732.0</ele><time>2026-04-02T09:00:53Z</time></trkpt><trkpt lat="43.54838139384921" lon="2.5007112492963186"><ele>733.0</ele><time>2026-04-02T09:00:54Z</time></trkpt><trkpt lat="43.54832531808415" lon="2.50088382632551"><ele>734.0</ele><time>2026-04-02T09:00:55Z</time></trkpt><trkpt lat="43.54828671689203" lon="2.5010811226356826"><ele>735.5</ele><time>2026-04-02T09:00:56Z</time></trkpt><trkpt lat="43.54826072831296" lon="2.5012604652879444"><ele>737.0</ele><time>2026-04-02T09:00:57Z</time></trkpt><trkpt lat="43.54829155328152" lon="2.501442335394894"><ele>738.5</ele><time>2026-04-02T09:00:58Z</time></trkpt><trkpt lat="43.54830417289418" lon="2.5016210710521847"><ele>740.0</ele><time>2026-04-02T09:00:59Z</time></trkpt><trkpt lat="43.54836200002028" lon="2.5017716419438054"><ele>740.0</ele><time>2026-04-02T09:01:00Z</time></trkpt><trkpt lat="43.548384129227344" lon="2.501912346784747"><ele>740.0</ele><time>2026-04-02T09:01:01Z</time></trkpt><trkpt lat="43.5484111504772" lon="2.502047030158193"><ele>740.0</ele><time>2026-04-02T09:01:02Z</time></trkpt><trkpt lat="43.54837931954336" lon="2.5021896100753716"><ele>740.0</ele><time>2026-04-02T09:01:03Z</time></trkpt><trkpt lat="43.54830360242337" lon="2.5022916561468276"><ele>740.0</ele><time>2026-04-02T09:01:04Z</time></trkpt><trkpt lat="43.548216378527215" lon="2.5024152816954044"><ele>737.6666666666666</ele><time>2026-04-02T09:01:05Z</time></trkpt><trkpt lat="43.54810641382763" lon="2.5025599861694436"><ele>735.3333333333334</ele><time>2026-04-02T09:01:06Z</time></trkpt><trkpt lat="43.54798530370001" lon="2.5026910677062717"><ele>733.0</ele><time>2026-04-02T09:01:07Z</time></trkpt><trkpt lat="43.54788522014324" lon="2.5028383519288377"><ele>732.0</ele><time>2026-04-02T09:01:08Z</time></trkpt><trkpt lat="43.54782672973799" lon="2.503028143651847"><ele>731.0</ele><time>2026-04-02T09:01:09Z</time></trkpt><trkpt lat="43.54778803200339" lon="2.50321041425534"><ele>730.0</ele><time>2026-04-02T09:01:10Z</time></trkpt><trkpt lat="43.5477897827197" lon="2.503349072045457"><ele>729.0</ele><time>2026-04-02T09:01:11Z</time></trkpt><trkpt lat="43.54782955669702" lon="2.5034664784222715"><ele>729.2</ele><time>2026-04-02T09:01:12Z</time></trkpt><trkpt lat="43.547908725729414" lon="2.5035593591710343"><ele>729.4000000000001</ele><time>2026-04-02T09:01:13Z</time></trkpt><trkpt lat="43.54798736672194" lon="2.5036190610589357"><ele>729.6</ele><time>2026-04-02T09:01:14Z</time></trkpt><trkpt lat="43.54810148154911" lon="2.5035998294807915"><ele>729.8</ele><time>2026-04-02T09:01:15Z</time></trkpt><trkpt lat="43.54820701119335" lon="2.503513401430455"><ele>730.0</ele><time>2026-04-02T09:01:16Z</time></trkpt><trkpt lat="43.54834239588508" lon="2.503471659032254"><ele>730.0</ele><time>2026-04-02T09:01:17Z</time></trkpt><trkpt lat="43.54847926909462" lon="2.5033933880581425"><ele>730.0</ele><time>2026-04-02T09:01:18Z</time></trkpt><trkpt lat="43.54862272791168" lon="2.5033647117185716"><ele>730.0</ele><time>2026-04-02T09:01:19Z</time></trkpt><trkpt lat="43.54875689899702" lon="2.5033726259314766"><ele>730.0</ele><time>2026-04-02T09:01:20Z</time></trkpt><trkpt lat="43.54885772378506" lon="2.503414593900814"><ele>729.4</ele><time>2026-04-02T09:01:21Z</time></trkpt><trkpt lat="43.54891878020024" lon="2.5034984532579587"><ele>728.8</ele><time>2026-04-02T09:01:22Z</time></trkpt><trkpt lat="43.54890793737156" lon="2.503631191523788"><ele>728.2</ele><time>2026-04-02T09:01:23Z</time></trkpt><trkpt lat="43.54890121523672" lon="2.5037635691316953"><ele>727.6</ele><time>2026-04-02T09:01:24Z</time></trkpt><trkpt lat="43.548927197612166" lon="2.503902468179341"><ele>727.0</ele><time>2026-04-02T09:01:25Z</time></trkpt><trkpt lat="43.54898236907165" lon="2.504065198587504"><ele>727.0</ele><time>2026-04-02T09:01:26Z</time></trkpt><trkpt lat="43.54908585396568" lon="2.5042265152752474"><ele>727.0</ele><time>2026-04-02T09:01:27Z</time></trkpt><trkpt lat="43.54919776303128" lon="2.504396450797518"><ele>727.0</ele><time>2026-04-02T09:01:28Z</time></trkpt><trkpt lat="43.5492610003027" lon="2.5045654195049263"><ele>727.2</ele><time>2026-04-02T09:01:29Z</time></trkpt><trkpt lat="43.54932150755261" lon="2.5047068110292785"><ele>727.4000000000001</ele><time>2026-04-02T09:01:30Z</time></trkpt><trkpt lat="43.549379396949995" lon="2.5048154529060285"><ele>727.5999999999999</ele><time>2026-04-02T09:01:31Z</time></trkpt><trkpt lat="43.549452323398484" lon="2.504881650770695"><ele>727.8</ele><time>2026-04-02T09:01:32Z</time></trkpt><trkpt lat="43.54954538701578" lon="2.504877454622559"><ele>728.0</ele><time>2026-04-02T09:01:33Z</time></trkpt><trkpt lat="43.549630388549176" lon="2.504799116937313"><ele>727.6666666666666</ele><time>2026-04-02T09:01:34Z</time></trkpt><trkpt lat="43.54972694032583" lon="2.5046635997026723"><ele>727.3333333333334</ele><time>2026-04-02T09:01:35Z</time></trkpt><trkpt lat="43.54983034243219" lon="2.5044857694881704"><ele>727.0</ele><time>2026-04-02T09:01:36Z</time></trkpt><trkpt lat="43.54994734304233" lon="2.5043257584557397"><ele>727.0</ele><time>2026-04-02T09:01:37Z</time></trkpt><trkpt lat="43.550023097150145" lon="2.5041213875081727"><ele>727.0</ele><time>2026-04-02T09:01:38Z</time></trkpt><trkpt lat="43.55009320587122" lon="2.5039466827513324"><ele>727.0</ele><time>2026-04-02T09:01:39Z</time></trkpt><trkpt lat="43.55014484389486" lon="2.5037793644072637"><ele>727.0</ele><time>2026-04-02T09:01:40Z</time></trkpt><trkpt lat="43.55018631600957" lon="2.5036520349410627"><ele>727.0</ele><time>2026-04-02T09:01:41Z</time></trkpt><trkpt lat="43.550218869509244" lon="2.503571678744602"><ele>727.0</ele><time>2026-04-02T09:01:42Z</time></trkpt><trkpt lat="43.550342987471645" lon="2.5035732400620865"><ele>727.0</ele><time>2026-04-02T09:01:44Z</time></trkpt><trkpt lat="43.55040895808718" lon="2.5036682653605102"><ele>727.0</ele><time>2026-04-02T09:01:45Z</time></trkpt><trkpt lat="43.55048124917291" lon="2.503790280134277"><ele>727.0</ele><time>2026-04-02T09:01:46Z</time></trkpt><trkpt lat="43.55059689785544" lon="2.5038986040334956"><ele>727.3333333333334</ele><time>2026-04-02T09:01:47Z</time></trkpt><trkpt lat="43.55073813627289" lon="2.5039708191030376"><ele>727.6666666666666</ele><time>2026-04-02T09:01:48Z</time></trkpt><trkpt lat="43.55086340689827" lon="2.504089592041717"><ele>728.0</ele><time>2026-04-02T09:01:49Z</time></trkpt><trkpt lat="43.550978565935644" lon="2.5042259925145784"><ele>728.0</ele><time>2026-04-02T09:01:50Z</time></trkpt><trkpt lat="43.55107324545021" lon="2.5043663399472518"><ele>728.0</ele><time>2026-04-02T09:01:51Z</time></trkpt><trkpt lat="43.55115131776823" lon="2.5045090364574505"><ele>728.0</ele><time>2026-04-02T09:01:52Z</time></trkpt><trkpt lat="43.55124748701712" lon="2.5045833357951532"><ele>728.0</ele><time>2026-04-02T09:01:53Z</time></trkpt><trkpt lat="43.551376039155166" lon="2.504600218886623"><ele>727.75</ele><time>2026-04-02T09:01:54Z</time></trkpt><trkpt lat="43.551514153970956" lon="2.504567136279093"><ele>727.5</ele><time>2026-04-02T09:01:55Z</time></trkpt><trkpt lat="43.55164091871335" lon="2.5045220877651846"><ele>727.25</ele><time>2026-04-02T09:01:56Z</time></trkpt><trkpt lat="43.55176178226784" lon="2.504444357736652"><ele>727.0</ele><time>2026-04-02T09:01:57Z</time></trkpt><trkpt lat="43.551873248786606" lon="2.50431857010791"><ele>727.0</ele><time>2026-04-02T09:01:58Z</time></trkpt><trkpt lat="43.55200145422664" lon="2.504208841336772"><ele>727.0</ele><time>2026-04-02T09:01:59Z</time></trkpt><trkpt lat="43.5521110669704" lon="2.504078461573302"><ele>727.0</ele><time>2026-04-02T09:02:00Z</time></trkpt><trkpt lat="43.55221779238345" lon="2.5039315850593784"><ele>727.0</ele><time>2026-04-02T09:02:01Z</time></trkpt><trkpt lat="43.55230242609651" lon="2.5037517606162183"><ele>726.0</ele><time>2026-04-02T09:02:02Z</time></trkpt><trkpt lat="43.55237907829553" lon="2.5035988187912137"><ele>725.0</ele><time>2026-04-02T09:02:03Z</time></trkpt><trkpt lat="43.55245870076329" lon="2.5035050895456035"><ele>724.0</ele><time>2026-04-02T09:02:04Z</time></trkpt><trkpt lat="43.552538917318245" lon="2.503454348291848"><ele>723.0</ele><time>2026-04-02T09:02:05Z</time></trkpt><trkpt lat="43.552630538492465" lon="2.503417554021329"><ele>722.0</ele><time>2026-04-02T09:02:06Z</time></trkpt><trkpt lat="43.5527305058138" lon="2.5033847911202964"><ele>722.0</ele><time>2026-04-02T09:02:07Z</time></trkpt><trkpt lat="43.55286583651609" lon="2.5033720126802357"><ele>722.0</ele><time>2026-04-02T09:02:08Z</time></trkpt><trkpt lat="43.5530182678543" lon="2.503339036908353"><ele>722.0</ele><time>2026-04-02T09:02:09Z</time></trkpt><trkpt lat="43.55314935595974" lon="2.503265637238155"><ele>722.0</ele><time>2026-04-02T09:02:10Z</time></trkpt><trkpt lat="43.553270252522225" lon="2.5031577868167143"><ele>721.75</ele><time>2026-04-02T09:02:11Z</time></trkpt><trkpt lat="43.55338655684724" lon="2.5030517223226116"><ele>721.5</ele><time>2026-04-02T09:02:12Z</time></trkpt><trkpt lat="43.55347335272443" lon="2.5028963452457895"><ele>721.25</ele><time>2026-04-02T09:02:13Z</time></trkpt><trkpt lat="43.55356410713348" lon="2.5027332897095764"><ele>721.0</ele><time>2026-04-02T09:02:14Z</time></trkpt><trkpt lat="43.55363150315898" lon="2.5025414983385486"><ele>721.0</ele><time>2026-04-02T09:02:15Z</time></trkpt><trkpt lat="43.55368699746224" lon="2.502365175122858"><ele>721.0</ele><time>2026-04-02T09:02:16Z</time></trkpt><trkpt lat="43.553750628347764" lon="2.5022175880400592"><ele>721.0</ele><time>2026-04-02T09:02:17Z</time></trkpt><trkpt lat="43.55381656512324" lon="2.502105634201084"><ele>721.0</ele><time>2026-04-02T09:02:18Z</time></trkpt><trkpt lat="43.55389882316091" lon="2.5020253122531892"><ele>720.1999999999999</ele><time>2026-04-02T09:02:19Z</time></trkpt><trkpt lat="43.55399609516269" lon="2.5020437123901305"><ele>719.4</ele><time>2026-04-02T09:02:20Z</time></trkpt><trkpt lat="43.55410799736176" lon="2.5020359528469855"><ele>718.6</ele><time>2026-04-02T09:02:21Z</time></trkpt><trkpt lat="43.55421081496802" lon="2.5020823742976623"><ele>717.8</ele><time>2026-04-02T09:02:22Z</time></trkpt><trkpt lat="43.554301816748726" lon="2.502061505092297"><ele>717.0</ele><time>2026-04-02T09:02:23Z</time></trkpt><trkpt lat="43.554395294335485" lon="2.5019679312475276"><ele>717.0</ele><time>2026-04-02T09:02:24Z</time></trkpt><trkpt lat="43.55447617174842" lon="2.5018305982951494"><ele>717.0</ele><time>2026-04-02T09:02:25Z</time></trkpt><trkpt lat="43.55457219633583" lon="2.5017127093230465"><ele>717.0</ele><time>2026-04-02T09:02:26Z</time></trkpt><trkpt lat="43.55468533896593" lon="2.501636244378524"><ele>717.0</ele><time>2026-04-02T09:02:27Z</time></trkpt><trkpt lat="43.55478105003382" lon="2.5015670119506748"><ele>717.0</ele><time>2026-04-02T09:02:28Z</time></trkpt><trkpt lat="43.55489461711088" lon="2.5016764158619447"><ele>717.0</ele><time>2026-04-02T09:02:29Z</time></trkpt><trkpt lat="43.555019807469286" lon="2.5017412835744994"><ele>717.0</ele><time>2026-04-02T09:02:30Z</time></trkpt><trkpt lat="43.55514519242244" lon="2.5017644752421013"><ele>717.0</ele><time>2026-04-02T09:02:31Z</time></trkpt><trkpt lat="43.55526699390413" lon="2.501749695775409"><ele>716.5</ele><time>2026-04-02T09:02:32Z</time></trkpt><trkpt lat="43.555386168959984" lon="2.5016784835837305"><ele>716.0</ele><time>2026-04-02T09:02:33Z</time></trkpt><trkpt lat="43.5555265576174" lon="2.5016271343405343"><ele>715.5</ele><time>2026-04-02T09:02:34Z</time></trkpt><trkpt lat="43.55567391027097" lon="2.5015551489190075"><ele>715.0</ele><time>2026-04-02T09:02:35Z</time></trkpt><trkpt lat="43.55581726442737" lon="2.501594261711628"><ele>715.0</ele><time>2026-04-02T09:02:36Z</time></trkpt><trkpt lat="43.555945892077915" lon="2.501547299501045"><ele>715.0</ele><time>2026-04-02T09:02:37Z</time></trkpt><trkpt lat="43.55605150049058" lon="2.5014817873623043"><ele>715.0</ele><time>2026-04-02T09:02:38Z</time></trkpt><trkpt lat="43.55614189166028" lon="2.5014362774519956"><ele>715.0</ele><time>2026-04-02T09:02:39Z</time></trkpt><trkpt lat="43.556226804870256" lon="2.5014569946169605"><ele>715.0</ele><time>2026-04-02T09:02:40Z</time></trkpt><trkpt lat="43.556279309956885" lon="2.501548875407177"><ele>716.25</ele><time>2026-04-02T09:02:41Z</time></trkpt><trkpt lat="43.55628326172061" lon="2.5016891434490023"><ele>717.5</ele><time>2026-04-02T09:02:42Z</time></trkpt><trkpt lat="43.55622960540153" lon="2.5018451485154216"><ele>718.75</ele><time>2026-04-02T09:02:43Z</time></trkpt><trkpt lat="43.55622359629172" lon="2.502025070789324"><ele>720.0</ele><time>2026-04-02T09:02:44Z</time></trkpt><trkpt lat="43.5562248885181" lon="2.5022186099893804"><ele>720.0</ele><time>2026-04-02T09:02:45Z</time></trkpt><trkpt lat="43.556262513810346" lon="2.5023833117433614"><ele>720.0</ele><time>2026-04-02T09:02:46Z</time></trkpt><trkpt lat="43.55633961792486" lon="2.5025300201716267"><ele>720.0</ele><time>2026-04-02T09:02:47Z</time></trkpt><trkpt lat="43.55646301902276" lon="2.502661724497784"><ele>720.0</ele><time>2026-04-02T09:02:48Z</time></trkpt><trkpt lat="43.556565691858694" lon="2.5027900746008136"><ele>720.0</ele><time>2026-04-02T09:02:49Z</time></trkpt><trkpt lat="43.556669810830236" lon="2.5028623763525344"><ele>720.0</ele><time>2026-04-02T09:02:50Z</time></trkpt><trkpt lat="43.55678365568665" lon="2.5028654237426826"><ele>720.0</ele><time>2026-04-02T09:02:51Z</time></trkpt><trkpt lat="43.556892912134" lon="2.5028426788703872"><ele>720.0</ele><time>2026-04-02T09:02:52Z</time></trkpt><trkpt lat="43.556986341158805" lon="2.502831160606087"><ele>720.0</ele><time>2026-04-02T09:02:53Z</time></trkpt><trkpt lat="43.55704470225278" lon="2.502905485825232"><ele>720.75</ele><time>2026-04-02T09:02:54Z</time></trkpt><trkpt lat="43.55707682747784" lon="2.5030243406103256"><ele>721.5</ele><time>2026-04-02T09:02:55Z</time></trkpt><trkpt lat="43.55703311298701" lon="2.503178467823587"><ele>722.25</ele><time>2026-04-02T09:02:56Z</time></trkpt><trkpt lat="43.55698550854789" lon="2.5033152389932853"><ele>723.0</ele><time>2026-04-02T09:02:57Z</time></trkpt><trkpt lat="43.55691545050034" lon="2.503465282444694"><ele>719.5</ele><time>2026-04-02T09:02:58Z</time></trkpt><trkpt lat="43.556850804403226" lon="2.503629930825663"><ele>716.0</ele><time>2026-04-02T09:02:59Z</time></trkpt><trkpt lat="43.55679150923561" lon="2.503814522307072"><ele>712.5</ele><time>2026-04-02T09:03:00Z</time></trkpt><trkpt lat="43.55676608022642" lon="2.503979398866133"><ele>709.0</ele><time>2026-04-02T09:03:01Z</time></trkpt><trkpt lat="43.55673817229719" lon="2.5041307435439615"><ele>708.75</ele><time>2026-04-02T09:03:02Z</time></trkpt><trkpt lat="43.556763708293275" lon="2.5042870770085544"><ele>708.5</ele><time>2026-04-02T09:03:03Z</time></trkpt><trkpt lat="43.55683844454183" lon="2.50444514932306"><ele>708.25</ele><time>2026-04-02T09:03:04Z</time></trkpt><trkpt lat="43.556936465682114" lon="2.504585015798605"><ele>708.0</ele><time>2026-04-02T09:03:05Z</time></trkpt><trkpt lat="43.557017690406944" lon="2.5047024291185838"><ele>712.0</ele><time>2026-04-02T09:03:06Z</time></trkpt><trkpt lat="43.55711929997468" lon="2.5047590736538328"><ele>716.0</ele><time>2026-04-02T09:03:07Z</time></trkpt><trkpt lat="43.55724158063538" lon="2.5047582635007726"><ele>720.0</ele><time>2026-04-02T09:03:08Z</time></trkpt><trkpt lat="43.557385116942896" lon="2.5047256895005563"><ele>724.0</ele><time>2026-04-02T09:03:09Z</time></trkpt><trkpt lat="43.557531174197415" lon="2.5046975497158614"><ele>724.0</ele><time>2026-04-02T09:03:10Z</time></trkpt><trkpt lat="43.55765326565006" lon="2.5047236462134266"><ele>724.0</ele><time>2026-04-02T09:03:11Z</time></trkpt><trkpt lat="43.5577504204653" lon="2.5047458725980842"><ele>724.0</ele><time>2026-04-02T09:03:12Z</time></trkpt><trkpt lat="43.557821245541355" lon="2.504775640611842"><ele>724.0</ele><time>2026-04-02T09:03:13Z</time></trkpt><trkpt lat="43.55784690951058" lon="2.5048939973434443"><ele>724.0</ele><time>2026-04-02T09:03:14Z</time></trkpt><trkpt lat="43.557827049331706" lon="2.5050253033654"><ele>724.0</ele><time>2026-04-02T09:03:15Z</time></trkpt><trkpt lat="43.55773538151292" lon="2.5051429477172085"><ele>724.0</ele><time>2026-04-02T09:03:16Z</time></trkpt><trkpt lat="43.557635550054165" lon="2.5052813179382345"><ele>724.0</ele><time>2026-04-02T09:03:17Z</time></trkpt><trkpt lat="43.5575269224234" lon="2.5054361969765866"><ele>724.0</ele><time>2026-04-02T09:03:18Z</time></trkpt><trkpt lat="43.557415620225555" lon="2.505563119779702"><ele>724.5</ele><time>2026-04-02T09:03:19Z</time></trkpt><trkpt lat="43.557317887298396" lon="2.505682535763074"><ele>725.0</ele><time>2026-04-02T09:03:20Z</time></trkpt><trkpt lat="43.557251951650755" lon="2.5058285485142777"><ele>725.5</ele><time>2026-04-02T09:03:21Z</time></trkpt><trkpt lat="43.557224803138254" lon="2.505992653825618"><ele>726.0</ele><time>2026-04-02T09:03:22Z</time></trkpt><trkpt lat="43.55724275719921" lon="2.5061611451851573"><ele>728.0</ele><time>2026-04-02T09:03:23Z</time></trkpt><trkpt lat="43.55729905200516" lon="2.5063249618425463"><ele>730.0</ele><time>2026-04-02T09:03:24Z</time></trkpt><trkpt lat="43.5573818450319" lon="2.5065073661074293"><ele>732.0</ele><time>2026-04-02T09:03:25Z</time></trkpt><trkpt lat="43.557468359724304" lon="2.506700083402638"><ele>732.0</ele><time>2026-04-02T09:03:26Z</time></trkpt><trkpt lat="43.557546759180894" lon="2.5069020981585695"><ele>732.0</ele><time>2026-04-02T09:03:27Z</time></trkpt><trkpt lat="43.55761486230393" lon="2.5071165694146185"><ele>732.0</ele><time>2026-04-02T09:03:28Z</time></trkpt><trkpt lat="43.55766683633701" lon="2.507337268149568"><ele>730.3333333333334</ele><time>2026-04-02T09:03:29Z</time></trkpt><trkpt lat="43.557716463929225" lon="2.5075677541391563"><ele>728.6666666666667</ele><time>2026-04-02T09:03:30Z</time></trkpt><trkpt lat="43.55775903090273" lon="2.5077818395346188"><ele>727.0</ele><time>2026-04-02T09:03:31Z</time></trkpt><trkpt lat="43.557826915208594" lon="2.507985736461946"><ele>730.0</ele><time>2026-04-02T09:03:32Z</time></trkpt><trkpt lat="43.5579107780844" lon="2.5081593774227384"><ele>733.0</ele><time>2026-04-02T09:03:33Z</time></trkpt><trkpt lat="43.558016575252616" lon="2.508308440272045"><ele>736.0</ele><time>2026-04-02T09:03:34Z</time></trkpt><trkpt lat="43.558173427661075" lon="2.508437000165606"><ele>736.0</ele><time>2026-04-02T09:03:35Z</time></trkpt><trkpt lat="43.55831500048881" lon="2.508586515462836"><ele>736.0</ele><time>2026-04-02T09:03:36Z</time></trkpt><trkpt lat="43.55842349962686" lon="2.5087517493888796"><ele>736.0</ele><time>2026-04-02T09:03:37Z</time></trkpt><trkpt lat="43.55853715750081" lon="2.508874889599369"><ele>736.6666666666667</ele><time>2026-04-02T09:03:38Z</time></trkpt><trkpt lat="43.55867849445258" lon="2.508967214737698"><ele>737.3333333333334</ele><time>2026-04-02T09:03:39Z</time></trkpt><trkpt lat="43.5588364455738" lon="2.5090522492769964"><ele>738.0</ele><time>2026-04-02T09:03:40Z</time></trkpt><trkpt lat="43.558955902425254" lon="2.509181710392202"><ele>738.0</ele><time>2026-04-02T09:03:41Z</time></trkpt><trkpt lat="43.55904482558343" lon="2.5092951018391862"><ele>738.0</ele><time>2026-04-02T09:03:42Z</time></trkpt><trkpt lat="43.559109398863654" lon="2.5094291282352827"><ele>738.0</ele><time>2026-04-02T09:03:43Z</time></trkpt><trkpt lat="43.55913770175598" lon="2.5095601659067843"><ele>738.0</ele><time>2026-04-02T09:03:44Z</time></trkpt><trkpt lat="43.55915536158114" lon="2.5097027713854665"><ele>738.0</ele><time>2026-04-02T09:03:45Z</time></trkpt><trkpt lat="43.55918204819227" lon="2.5098137654099064"><ele>735.5999999999999</ele><time>2026-04-02T09:03:46Z</time></trkpt><trkpt lat="43.559206931148466" lon="2.5099336951358087"><ele>733.1999999999999</ele><time>2026-04-02T09:03:47Z</time></trkpt><trkpt lat="43.55924850103867" lon="2.5100593580641704"><ele>730.8</ele><time>2026-04-02T09:03:48Z</time></trkpt><trkpt lat="43.5592989681283" lon="2.510199301911954"><ele>728.4</ele><time>2026-04-02T09:03:49Z</time></trkpt><trkpt lat="43.55937439531579" lon="2.5103591347957943"><ele>726.0</ele><time>2026-04-02T09:03:50Z</time></trkpt><trkpt lat="43.55947372257447" lon="2.510515798937512"><ele>726.0</ele><time>2026-04-02T09:03:51Z</time></trkpt><trkpt lat="43.55958478190255" lon="2.5106537988111155"><ele>726.0</ele><time>2026-04-02T09:03:52Z</time></trkpt><trkpt lat="43.559725995268" lon="2.5107530444917563"><ele>726.0</ele><time>2026-04-02T09:03:53Z</time></trkpt><trkpt lat="43.55988769477331" lon="2.510808342053971"><ele>726.0</ele><time>2026-04-02T09:03:54Z</time></trkpt><trkpt lat="43.56002768038507" lon="2.5108450697948297"><ele>726.0</ele><time>2026-04-02T09:03:55Z</time></trkpt><trkpt lat="43.560179782093215" lon="2.5108573998661274"><ele>726.0</ele><time>2026-04-02T09:03:56Z</time></trkpt><trkpt lat="43.56030889712764" lon="2.5108103316472903"><ele>726.0</ele><time>2026-04-02T09:03:57Z</time></trkpt><trkpt lat="43.560460972541584" lon="2.510721710967771"><ele>727.3333333333334</ele><time>2026-04-02T09:03:58Z</time></trkpt><trkpt lat="43.560609945680596" lon="2.5105960882207863"><ele>728.6666666666667</ele><time>2026-04-02T09:03:59Z</time></trkpt><trkpt lat="43.56074721956374" lon="2.510458037300367"><ele>730.0</ele><time>2026-04-02T09:04:00Z</time></trkpt><trkpt lat="43.56087856775374" lon="2.510353293213591"><ele>731.0</ele><time>2026-04-02T09:04:01Z</time></trkpt><trkpt lat="43.56099303029426" lon="2.5102280034739333"><ele>732.0</ele><time>2026-04-02T09:04:02Z</time></trkpt><trkpt lat="43.561105000560914" lon="2.510120871599811"><ele>733.0</ele><time>2026-04-02T09:04:03Z</time></trkpt><trkpt lat="43.56121327144516" lon="2.510018279825633"><ele>734.0</ele><time>2026-04-02T09:04:04Z</time></trkpt><trkpt lat="43.561306288021996" lon="2.50995180106756"><ele>734.0</ele><time>2026-04-02T09:04:05Z</time></trkpt><trkpt lat="43.5613822760172" lon="2.509930423999415"><ele>734.0</ele><time>2026-04-02T09:04:06Z</time></trkpt><trkpt lat="43.56147016440909" lon="2.50993107582612"><ele>734.0</ele><time>2026-04-02T09:04:08Z</time></trkpt><trkpt lat="43.56149470690564" lon="2.5101335435223"><ele>734.0</ele><time>2026-04-02T09:04:18Z</time></trkpt><trkpt lat="43.561467645886005" lon="2.51024686956543"><ele>734.0</ele><time>2026-04-02T09:04:19Z</time></trkpt><trkpt lat="43.56146979913246" lon="2.5103857496362405"><ele>731.75</ele><time>2026-04-02T09:04:20Z</time></trkpt><trkpt lat="43.56150460111709" lon="2.5105248924084913"><ele>729.5</ele><time>2026-04-02T09:04:21Z</time></trkpt><trkpt lat="43.56155752004894" lon="2.5106728493332224"><ele>727.25</ele><time>2026-04-02T09:04:22Z</time></trkpt><trkpt lat="43.56161987055828" lon="2.5108280858256506"><ele>725.0</ele><time>2026-04-02T09:04:23Z</time></trkpt><trkpt lat="43.56168390030818" lon="2.5109976271687056"><ele>725.0</ele><time>2026-04-02T09:04:24Z</time></trkpt><trkpt lat="43.56173906531106" lon="2.5111946610208213"><ele>725.0</ele><time>2026-04-02T09:04:25Z</time></trkpt><trkpt lat="43.56180825108201" lon="2.5113933579327763"><ele>725.0</ele><time>2026-04-02T09:04:26Z</time></trkpt><trkpt lat="43.56187343712759" lon="2.5115903214372906"><ele>721.0</ele><time>2026-04-02T09:04:27Z</time></trkpt><trkpt lat="43.5619235282185" lon="2.5118073026338976"><ele>717.0</ele><time>2026-04-02T09:04:28Z</time></trkpt><trkpt lat="43.56195096287173" lon="2.512060117054243"><ele>713.0</ele><time>2026-04-02T09:04:29Z</time></trkpt><trkpt lat="43.56198629327085" lon="2.5123234909129457"><ele>710.6666666666666</ele><time>2026-04-02T09:04:30Z</time></trkpt><trkpt lat="43.56201423235506" lon="2.5125785900682063"><ele>708.3333333333334</ele><time>2026-04-02T09:04:31Z</time></trkpt><trkpt lat="43.5620368600392" lon="2.512828622271443"><ele>706.0</ele><time>2026-04-02T09:04:32Z</time></trkpt><trkpt lat="43.56205635460428" lon="2.5130620824231547"><ele>705.75</ele><time>2026-04-02T09:04:33Z</time></trkpt><trkpt lat="43.562076715019884" lon="2.513283828419394"><ele>705.5</ele><time>2026-04-02T09:04:34Z</time></trkpt><trkpt lat="43.56211801062647" lon="2.5134813846751918"><ele>705.25</ele><time>2026-04-02T09:04:35Z</time></trkpt><trkpt lat="43.562158870719685" lon="2.5136509786813503"><ele>705.0</ele><time>2026-04-02T09:04:36Z</time></trkpt><trkpt lat="43.56223366231544" lon="2.5137989448312283"><ele>708.0</ele><time>2026-04-02T09:04:37Z</time></trkpt><trkpt lat="43.56239309157639" lon="2.5138325292996786"><ele>711.0</ele><time>2026-04-02T09:04:38Z</time></trkpt><trkpt lat="43.56251616412286" lon="2.513935730701854"><ele>714.0</ele><time>2026-04-02T09:04:39Z</time></trkpt><trkpt lat="43.56264023011501" lon="2.514047808675522"><ele>714.0</ele><time>2026-04-02T09:04:40Z</time></trkpt><trkpt lat="43.562721543500466" lon="2.514205501766653"><ele>714.0</ele><time>2026-04-02T09:04:41Z</time></trkpt><trkpt lat="43.56273099918585" lon="2.5143700701256355"><ele>714.0</ele><time>2026-04-02T09:04:42Z</time></trkpt><trkpt lat="43.562734489614485" lon="2.51455829061287"><ele>714.0</ele><time>2026-04-02T09:04:43Z</time></trkpt><trkpt lat="43.56274411071769" lon="2.514766146160414"><ele>713.75</ele><time>2026-04-02T09:04:44Z</time></trkpt><trkpt lat="43.562794513865825" lon="2.514981967562041"><ele>713.5</ele><time>2026-04-02T09:04:45Z</time></trkpt><trkpt lat="43.56287507783327" lon="2.5151579009997507"><ele>713.25</ele><time>2026-04-02T09:04:46Z</time></trkpt><trkpt lat="43.56291418617433" lon="2.5153351404524096"><ele>713.0</ele><time>2026-04-02T09:04:47Z</time></trkpt><trkpt lat="43.562909650739414" lon="2.515487752744386"><ele>718.5</ele><time>2026-04-02T09:04:48Z</time></trkpt><trkpt lat="43.56280131067502" lon="2.5156522921502265"><ele>724.0</ele><time>2026-04-02T09:04:49Z</time></trkpt><trkpt lat="43.562791825289366" lon="2.515777021098469"><ele>729.5</ele><time>2026-04-02T09:04:50Z</time></trkpt><trkpt lat="43.56277337591152" lon="2.515917009828807"><ele>735.0</ele><time>2026-04-02T09:04:51Z</time></trkpt><trkpt lat="43.56285035521566" lon="2.5160597020755033"><ele>732.6666666666666</ele><time>2026-04-02T09:04:52Z</time></trkpt><trkpt lat="43.56295540725527" lon="2.5161518601706057"><ele>730.3333333333333</ele><time>2026-04-02T09:04:53Z</time></trkpt><trkpt lat="43.563090294762006" lon="2.5161959883708476"><ele>728.0</ele><time>2026-04-02T09:04:54Z</time></trkpt><trkpt lat="43.56325618254046" lon="2.5163224549699157"><ele>728.0</ele><time>2026-04-02T09:04:55Z</time></trkpt><trkpt lat="43.56334695510908" lon="2.51650740463057"><ele>728.0</ele><time>2026-04-02T09:04:56Z</time></trkpt><trkpt lat="43.56341869598008" lon="2.5167432679068678"><ele>728.0</ele><time>2026-04-02T09:04:57Z</time></trkpt><trkpt lat="43.563519640623234" lon="2.5169809317703438"><ele>733.6666666666666</ele><time>2026-04-02T09:04:58Z</time></trkpt><trkpt lat="43.563623131154294" lon="2.517217984559972"><ele>739.3333333333334</ele><time>2026-04-02T09:04:59Z</time></trkpt><trkpt lat="43.56367312902726" lon="2.517451443211946"><ele>745.0</ele><time>2026-04-02T09:05:00Z</time></trkpt><trkpt lat="43.56369280711022" lon="2.5176550806623323"><ele>745.0</ele><time>2026-04-02T09:05:01Z</time></trkpt><trkpt lat="43.56368952546124" lon="2.517870168145277"><ele>745.0</ele><time>2026-04-02T09:05:02Z</time></trkpt><trkpt lat="43.56366999406331" lon="2.5181326520693417"><ele>745.0</ele><time>2026-04-02T09:05:03Z</time></trkpt><trkpt lat="43.56362505475933" lon="2.518423434612972"><ele>745.5</ele><time>2026-04-02T09:05:04Z</time></trkpt><trkpt lat="43.563541975913196" lon="2.518725240571069"><ele>746.0</ele><time>2026-04-02T09:05:05Z</time></trkpt><trkpt lat="43.56343132079944" lon="2.519028326436975"><ele>746.0</ele><time>2026-04-02T09:05:06Z</time></trkpt><trkpt lat="43.56331605791523" lon="2.519342505639888"><ele>746.0</ele><time>2026-04-02T09:05:07Z</time></trkpt><trkpt lat="43.56321808391799" lon="2.519673560635669"><ele>742.5</ele><time>2026-04-02T09:05:08Z</time></trkpt><trkpt lat="43.563127318911754" lon="2.5200007399368283"><ele>739.0</ele><time>2026-04-02T09:05:09Z</time></trkpt><trkpt lat="43.56302776503133" lon="2.520311494132952"><ele>737.0</ele><time>2026-04-02T09:05:10Z</time></trkpt><trkpt lat="43.56292015299935" lon="2.5205897281039826"><ele>735.0</ele><time>2026-04-02T09:05:11Z</time></trkpt><trkpt lat="43.56278610870895" lon="2.5208676679864714"><ele>743.0</ele><time>2026-04-02T09:05:12Z</time></trkpt><trkpt lat="43.56264518693444" lon="2.5211396922746836"><ele>751.0</ele><time>2026-04-02T09:05:13Z</time></trkpt><trkpt lat="43.56250247873881" lon="2.5214033800883207"><ele>751.0</ele><time>2026-04-02T09:05:14Z</time></trkpt><trkpt lat="43.56238415296196" lon="2.5216579900902447"><ele>751.0</ele><time>2026-04-02T09:05:15Z</time></trkpt><trkpt lat="43.56227796104607" lon="2.5218803465665847"><ele>751.0</ele><time>2026-04-02T09:05:16Z</time></trkpt><trkpt lat="43.56221164574029" lon="2.5220668775051243"><ele>749.25</ele><time>2026-04-02T09:05:17Z</time></trkpt><trkpt lat="43.56218115351153" lon="2.5222318185396153"><ele>747.5</ele><time>2026-04-02T09:05:18Z</time></trkpt><trkpt lat="43.56218802783068" lon="2.5224013370299536"><ele>745.75</ele><time>2026-04-02T09:05:19Z</time></trkpt><trkpt lat="43.56223544375063" lon="2.5225854707573623"><ele>744.0</ele><time>2026-04-02T09:05:20Z</time></trkpt><trkpt lat="43.56231311845404" lon="2.5227915206071074"><ele>744.0</ele><time>2026-04-02T09:05:21Z</time></trkpt><trkpt lat="43.562404674722615" lon="2.523010972697705"><ele>744.0</ele><time>2026-04-02T09:05:22Z</time></trkpt><trkpt lat="43.562482117901816" lon="2.523263505790177"><ele>744.0</ele><time>2026-04-02T09:05:23Z</time></trkpt><trkpt lat="43.562578650232595" lon="2.523546717756342"><ele>745.0</ele><time>2026-04-02T09:05:24Z</time></trkpt><trkpt lat="43.56266183852707" lon="2.523828315488419"><ele>746.0</ele><time>2026-04-02T09:05:25Z</time></trkpt><trkpt lat="43.56272786135341" lon="2.5240185135726154"><ele>747.0</ele><time>2026-04-02T09:05:26Z</time></trkpt><trkpt lat="43.56281084853615" lon="2.524210455502098"><ele>746.6666666666666</ele><time>2026-04-02T09:05:27Z</time></trkpt><trkpt lat="43.56293056079623" lon="2.524329669109735"><ele>746.3333333333333</ele><time>2026-04-02T09:05:28Z</time></trkpt><trkpt lat="43.56306805647646" lon="2.52445642954127"><ele>746.0</ele><time>2026-04-02T09:05:29Z</time></trkpt><trkpt lat="43.56324168173303" lon="2.524573967383643"><ele>746.0</ele><time>2026-04-02T09:05:30Z</time></trkpt><trkpt lat="43.56343961227104" lon="2.5246798765402696"><ele>746.0</ele><time>2026-04-02T09:05:31Z</time></trkpt><trkpt lat="43.56362887093535" lon="2.524792410258076"><ele>746.0</ele><time>2026-04-02T09:05:32Z</time></trkpt><trkpt lat="43.56377307541698" lon="2.5249397832698826"><ele>748.3333333333333</ele><time>2026-04-02T09:05:33Z</time></trkpt><trkpt lat="43.56386286371393" lon="2.525119772878417"><ele>750.6666666666666</ele><time>2026-04-02T09:05:34Z</time></trkpt><trkpt lat="43.56395033281664" lon="2.525346100024699"><ele>753.0</ele><time>2026-04-02T09:05:35Z</time></trkpt><trkpt lat="43.564030513881434" lon="2.5255306817167678"><ele>753.5</ele><time>2026-04-02T09:05:36Z</time></trkpt><trkpt lat="43.56408466070825" lon="2.5256861769600314"><ele>754.0</ele><time>2026-04-02T09:05:37Z</time></trkpt><trkpt lat="43.56408205298633" lon="2.525831879651959"><ele>754.5</ele><time>2026-04-02T09:05:38Z</time></trkpt><trkpt lat="43.56402315473585" lon="2.526005083454471"><ele>755.0</ele><time>2026-04-02T09:05:39Z</time></trkpt><trkpt lat="43.563959286190254" lon="2.5262632063424504"><ele>759.0</ele><time>2026-04-02T09:05:40Z</time></trkpt><trkpt lat="43.563886703807114" lon="2.526544254935522"><ele>763.0</ele><time>2026-04-02T09:05:41Z</time></trkpt><trkpt lat="43.56380946961178" lon="2.526840703045597"><ele>767.0</ele><time>2026-04-02T09:05:42Z</time></trkpt><trkpt lat="43.56372929113801" lon="2.527149759438747"><ele>769.0</ele><time>2026-04-02T09:05:43Z</time></trkpt><trkpt lat="43.56364278479901" lon="2.527483240569438"><ele>771.0</ele><time>2026-04-02T09:05:44Z</time></trkpt><trkpt lat="43.563565434279596" lon="2.5277997016283216"><ele>771.0</ele><time>2026-04-02T09:05:45Z</time></trkpt><trkpt lat="43.563492867370925" lon="2.5280643789564348"><ele>771.0</ele><time>2026-04-02T09:05:46Z</time></trkpt><trkpt lat="43.5634424893871" lon="2.5283135085601973"><ele>771.0</ele><time>2026-04-02T09:05:47Z</time></trkpt><trkpt lat="43.56343572589297" lon="2.5285617471790163"><ele>770.0</ele><time>2026-04-02T09:05:48Z</time></trkpt><trkpt lat="43.56342464338837" lon="2.5288535260650993"><ele>769.0</ele><time>2026-04-02T09:05:49Z</time></trkpt><trkpt lat="43.563466819244546" lon="2.529171867845594"><ele>768.0</ele><time>2026-04-02T09:05:50Z</time></trkpt><trkpt lat="43.56350183323077" lon="2.5295185121455526"><ele>766.5</ele><time>2026-04-02T09:05:51Z</time></trkpt><trkpt lat="43.56348933158918" lon="2.529890475208073"><ele>765.0</ele><time>2026-04-02T09:05:52Z</time></trkpt><trkpt lat="43.563470492384496" lon="2.53023519722926"><ele>765.3333333333334</ele><time>2026-04-02T09:05:53Z</time></trkpt><trkpt lat="43.56341779983573" lon="2.53054048787284"><ele>765.6666666666667</ele><time>2026-04-02T09:05:54Z</time></trkpt><trkpt lat="43.56338037663921" lon="2.530815639453173"><ele>766.0</ele><time>2026-04-02T09:05:55Z</time></trkpt><trkpt lat="43.56339391968815" lon="2.531042205908955"><ele>765.6666666666667</ele><time>2026-04-02T09:05:56Z</time></trkpt><trkpt lat="43.563447008367696" lon="2.531262801816401"><ele>765.3333333333334</ele><time>2026-04-02T09:05:57Z</time></trkpt><trkpt lat="43.56354664456024" lon="2.531496662926774"><ele>765.0</ele><time>2026-04-02T09:05:58Z</time></trkpt><trkpt lat="43.56359294125649" lon="2.5317692693613463"><ele>764.0</ele><time>2026-04-02T09:05:59Z</time></trkpt><trkpt lat="43.563594850871" lon="2.5320626503073083"><ele>763.0</ele><time>2026-04-02T09:06:00Z</time></trkpt><trkpt lat="43.563584177201086" lon="2.532353584016834"><ele>762.0</ele><time>2026-04-02T09:06:01Z</time></trkpt><trkpt lat="43.563583957803345" lon="2.5326429732160514"><ele>763.0</ele><time>2026-04-02T09:06:02Z</time></trkpt><trkpt lat="43.563562873345965" lon="2.532929807072149"><ele>764.0</ele><time>2026-04-02T09:06:03Z</time></trkpt><trkpt lat="43.56352197316479" lon="2.533192485841334"><ele>765.0</ele><time>2026-04-02T09:06:04Z</time></trkpt><trkpt lat="43.56346760170396" lon="2.5334191176380036"><ele>765.0</ele><time>2026-04-02T09:06:05Z</time></trkpt><trkpt lat="43.56339904634525" lon="2.533657925945432"><ele>765.0</ele><time>2026-04-02T09:06:06Z</time></trkpt><trkpt lat="43.56330933728676" lon="2.533925869103008"><ele>765.0</ele><time>2026-04-02T09:06:07Z</time></trkpt><trkpt lat="43.563175754239865" lon="2.5341733832842483"><ele>764.0</ele><time>2026-04-02T09:06:08Z</time></trkpt><trkpt lat="43.56304626475179" lon="2.534428266869814"><ele>763.0</ele><time>2026-04-02T09:06:09Z</time></trkpt><trkpt lat="43.56292154328233" lon="2.5346810037117486"><ele>762.0</ele><time>2026-04-02T09:06:10Z</time></trkpt><trkpt lat="43.56281127460456" lon="2.5349165026411735"><ele>760.3333333333334</ele><time>2026-04-02T09:06:11Z</time></trkpt><trkpt lat="43.56269146288951" lon="2.5351190369156793"><ele>758.6666666666667</ele><time>2026-04-02T09:06:12Z</time></trkpt><trkpt lat="43.56259106341594" lon="2.535300461330789"><ele>757.0</ele><time>2026-04-02T09:06:13Z</time></trkpt><trkpt lat="43.56248912448009" lon="2.535448281504025"><ele>756.25</ele><time>2026-04-02T09:06:14Z</time></trkpt><trkpt lat="43.56236108184722" lon="2.535544122528451"><ele>755.5</ele><time>2026-04-02T09:06:15Z</time></trkpt><trkpt lat="43.56226930116729" lon="2.535649992864796"><ele>754.75</ele><time>2026-04-02T09:06:16Z</time></trkpt><trkpt lat="43.562190332681766" lon="2.5357538074662167"><ele>754.0</ele><time>2026-04-02T09:06:17Z</time></trkpt><trkpt lat="43.562155942783626" lon="2.5359041136489844"><ele>754.0</ele><time>2026-04-02T09:06:18Z</time></trkpt><trkpt lat="43.56221916079775" lon="2.536070261032566"><ele>754.0</ele><time>2026-04-02T09:06:19Z</time></trkpt><trkpt lat="43.562309630449505" lon="2.53617517918266"><ele>754.0</ele><time>2026-04-02T09:06:20Z</time></trkpt><trkpt lat="43.56244544656311" lon="2.536258057563907"><ele>754.0</ele><time>2026-04-02T09:06:21Z</time></trkpt><trkpt lat="43.56259816789105" lon="2.5363842714628246"><ele>753.6666666666667</ele><time>2026-04-02T09:06:22Z</time></trkpt><trkpt lat="43.56276837701166" lon="2.5365295419324947"><ele>753.3333333333334</ele><time>2026-04-02T09:06:23Z</time></trkpt><trkpt lat="43.562912125860564" lon="2.5366779013090257"><ele>753.0</ele><time>2026-04-02T09:06:24Z</time></trkpt><trkpt lat="43.56301117874942" lon="2.536852082377711"><ele>753.0</ele><time>2026-04-02T09:06:25Z</time></trkpt><trkpt lat="43.56309270450105" lon="2.5370490948211777"><ele>753.0</ele><time>2026-04-02T09:06:26Z</time></trkpt><trkpt lat="43.563131817055734" lon="2.537243673942499"><ele>753.0</ele><time>2026-04-02T09:06:27Z</time></trkpt><trkpt lat="43.56315878136272" lon="2.537449500482474"><ele>753.3333333333334</ele><time>2026-04-02T09:06:28Z</time></trkpt><trkpt lat="43.5631774663082" lon="2.5376751694797557"><ele>753.6666666666667</ele><time>2026-04-02T09:06:29Z</time></trkpt><trkpt lat="43.563182674419934" lon="2.53791385795902"><ele>754.0</ele><time>2026-04-02T09:06:30Z</time></trkpt><trkpt lat="43.56320077126675" lon="2.5381647706540176"><ele>754.3333333333334</ele><time>2026-04-02T09:06:31Z</time></trkpt><trkpt lat="43.563179864913636" lon="2.538413465268263"><ele>754.6666666666666</ele><time>2026-04-02T09:06:32Z</time></trkpt><trkpt lat="43.563175652541645" lon="2.5386630729683213"><ele>755.0</ele><time>2026-04-02T09:06:33Z</time></trkpt><trkpt lat="43.56312694661577" lon="2.5389220878484386"><ele>756.0</ele><time>2026-04-02T09:06:34Z</time></trkpt><trkpt lat="43.56317099303678" lon="2.539211573235731"><ele>757.0</ele><time>2026-04-02T09:06:35Z</time></trkpt><trkpt lat="43.563254973078855" lon="2.5395190261012277"><ele>757.0</ele><time>2026-04-02T09:06:36Z</time></trkpt><trkpt lat="43.56332310260151" lon="2.539789422159352"><ele>757.0</ele><time>2026-04-02T09:06:37Z</time></trkpt><trkpt lat="43.563364439638015" lon="2.5400028226514735"><ele>757.0</ele><time>2026-04-02T09:06:38Z</time></trkpt><trkpt lat="43.563385315081156" lon="2.5401856401505882"><ele>756.6666666666667</ele><time>2026-04-02T09:06:39Z</time></trkpt><trkpt lat="43.56337426918677" lon="2.5403910851508105"><ele>756.3333333333334</ele><time>2026-04-02T09:06:40Z</time></trkpt><trkpt lat="43.563312941353345" lon="2.540608039542639"><ele>756.0</ele><time>2026-04-02T09:06:41Z</time></trkpt><trkpt lat="43.56321659158057" lon="2.540843214918953"><ele>756.0</ele><time>2026-04-02T09:06:42Z</time></trkpt><trkpt lat="43.56311391167853" lon="2.541090384977805"><ele>756.0</ele><time>2026-04-02T09:06:43Z</time></trkpt><trkpt lat="43.56301919413875" lon="2.541312445041839"><ele>756.0</ele><time>2026-04-02T09:06:44Z</time></trkpt><trkpt lat="43.56296820980476" lon="2.5415115538979167"><ele>756.75</ele><time>2026-04-02T09:06:45Z</time></trkpt><trkpt lat="43.56293908475725" lon="2.541700389844884"><ele>757.5</ele><time>2026-04-02T09:06:46Z</time></trkpt><trkpt lat="43.56296684983427" lon="2.5418889849066293"><ele>758.25</ele><time>2026-04-02T09:06:47Z</time></trkpt><trkpt lat="43.56304667551866" lon="2.542054564512526"><ele>759.0</ele><time>2026-04-02T09:06:48Z</time></trkpt><trkpt lat="43.56316582911322" lon="2.5422079290255217"><ele>762.0</ele><time>2026-04-02T09:06:49Z</time></trkpt><trkpt lat="43.56331174051623" lon="2.5423394665402133"><ele>765.0</ele><time>2026-04-02T09:06:50Z</time></trkpt><trkpt lat="43.56346562705882" lon="2.5423914413675814"><ele>768.0</ele><time>2026-04-02T09:06:51Z</time></trkpt><trkpt lat="43.563630973856604" lon="2.5423479415596204"><ele>768.0</ele><time>2026-04-02T09:06:52Z</time></trkpt><trkpt lat="43.56380162386683" lon="2.5422396249338517"><ele>768.0</ele><time>2026-04-02T09:06:53Z</time></trkpt><trkpt lat="43.56397505268377" lon="2.542094779890537"><ele>768.0</ele><time>2026-04-02T09:06:54Z</time></trkpt><trkpt lat="43.56416984758559" lon="2.54199521302142"><ele>768.0</ele><time>2026-04-02T09:06:55Z</time></trkpt><trkpt lat="43.56437935218098" lon="2.5419568966581187"><ele>768.0</ele><time>2026-04-02T09:06:56Z</time></trkpt><trkpt lat="43.56455826991923" lon="2.541960757744857"><ele>768.0</ele><time>2026-04-02T09:06:57Z</time></trkpt><trkpt lat="43.56474075442755" lon="2.542009712525354"><ele>768.6666666666667</ele><time>2026-04-02T09:06:58Z</time></trkpt><trkpt lat="43.56494238665212" lon="2.5420990265807437"><ele>769.3333333333334</ele><time>2026-04-02T09:06:59Z</time></trkpt><trkpt lat="43.5651619316678" lon="2.542184037640093"><ele>770.0</ele><time>2026-04-02T09:07:00Z</time></trkpt><trkpt lat="43.565393419921186" lon="2.542259381501366"><ele>770.0</ele><time>2026-04-02T09:07:01Z</time></trkpt><trkpt lat="43.56561863816758" lon="2.5423649134135626"><ele>770.0</ele><time>2026-04-02T09:07:02Z</time></trkpt><trkpt lat="43.56581393076265" lon="2.5425042007112655"><ele>770.0</ele><time>2026-04-02T09:07:03Z</time></trkpt><trkpt lat="43.565988289760746" lon="2.5426674163852474"><ele>770.0</ele><time>2026-04-02T09:07:04Z</time></trkpt><trkpt lat="43.5661410462876" lon="2.5428513443597867"><ele>770.0</ele><time>2026-04-02T09:07:05Z</time></trkpt><trkpt lat="43.56628060492285" lon="2.5430597143066627"><ele>769.6666666666667</ele><time>2026-04-02T09:07:06Z</time></trkpt><trkpt lat="43.56640037793904" lon="2.5433039797337655"><ele>769.3333333333333</ele><time>2026-04-02T09:07:07Z</time></trkpt><trkpt lat="43.56650240773035" lon="2.543587806107741"><ele>769.0</ele><time>2026-04-02T09:07:08Z</time></trkpt><trkpt lat="43.56660294564094" lon="2.5438877717886186"><ele>770.6666666666666</ele><time>2026-04-02T09:07:09Z</time></trkpt><trkpt lat="43.56673071437807" lon="2.54416903070691"><ele>772.3333333333333</ele><time>2026-04-02T09:07:10Z</time></trkpt><trkpt lat="43.56686867689779" lon="2.5443839549354808"><ele>774.0</ele><time>2026-04-02T09:07:11Z</time></trkpt><trkpt lat="43.566998294848496" lon="2.544566002435788"><ele>773.0</ele><time>2026-04-02T09:07:12Z</time></trkpt><trkpt lat="43.56708243762177" lon="2.544722383452571"><ele>772.0</ele><time>2026-04-02T09:07:13Z</time></trkpt><trkpt lat="43.56712117020772" lon="2.5448349326793007"><ele>771.0</ele><time>2026-04-02T09:07:14Z</time></trkpt><trkpt lat="43.567135691499516" lon="2.5449285617564414"><ele>770.0</ele><time>2026-04-02T09:07:15Z</time></trkpt><trkpt lat="43.56712271868365" lon="2.5450363412011034"><ele>769.0</ele><time>2026-04-02T09:07:16Z</time></trkpt><trkpt lat="43.56708491152871" lon="2.5451958351490878"><ele>771.0</ele><time>2026-04-02T09:07:17Z</time></trkpt><trkpt lat="43.56702674498779" lon="2.54539898914689"><ele>773.0</ele><time>2026-04-02T09:07:18Z</time></trkpt><trkpt lat="43.56695057074681" lon="2.545637839085382"><ele>775.0</ele><time>2026-04-02T09:07:19Z</time></trkpt><trkpt lat="43.56687317652572" lon="2.54591192997048"><ele>775.0</ele><time>2026-04-02T09:07:20Z</time></trkpt><trkpt lat="43.5667972083901" lon="2.5461821413765353"><ele>775.0</ele><time>2026-04-02T09:07:21Z</time></trkpt><trkpt lat="43.566710286442344" lon="2.5464689690444993"><ele>775.0</ele><time>2026-04-02T09:07:22Z</time></trkpt><trkpt lat="43.56662825672961" lon="2.5467518563570826"><ele>774.0</ele><time>2026-04-02T09:07:23Z</time></trkpt><trkpt lat="43.566573608310975" lon="2.547041057344273"><ele>773.0</ele><time>2026-04-02T09:07:24Z</time></trkpt><trkpt lat="43.566554591084284" lon="2.5473783688543996"><ele>774.5</ele><time>2026-04-02T09:07:25Z</time></trkpt><trkpt lat="43.56656054207627" lon="2.547740698627101"><ele>776.0</ele><time>2026-04-02T09:07:26Z</time></trkpt><trkpt lat="43.566586098256494" lon="2.5480670070964826"><ele>776.0</ele><time>2026-04-02T09:07:27Z</time></trkpt><trkpt lat="43.566629346928316" lon="2.5483621140923627"><ele>776.0</ele><time>2026-04-02T09:07:28Z</time></trkpt><trkpt lat="43.56669346626868" lon="2.548662237472386"><ele>776.0</ele><time>2026-04-02T09:07:29Z</time></trkpt><trkpt lat="43.56678879209831" lon="2.5489810265347015"><ele>773.5</ele><time>2026-04-02T09:07:30Z</time></trkpt><trkpt lat="43.566919439714255" lon="2.549298489741219"><ele>771.0</ele><time>2026-04-02T09:07:31Z</time></trkpt><trkpt lat="43.567080105598635" lon="2.5496043545650773"><ele>771.0</ele><time>2026-04-02T09:07:32Z</time></trkpt><trkpt lat="43.567242425276255" lon="2.549894233957056"><ele>771.0</ele><time>2026-04-02T09:07:33Z</time></trkpt><trkpt lat="43.567387133955" lon="2.550184944136958"><ele>768.5</ele><time>2026-04-02T09:07:34Z</time></trkpt><trkpt lat="43.56748769740891" lon="2.5505118097625306"><ele>766.0</ele><time>2026-04-02T09:07:35Z</time></trkpt><trkpt lat="43.56753872514887" lon="2.5508587818158395"><ele>765.5</ele><time>2026-04-02T09:07:36Z</time></trkpt><trkpt lat="43.56757536102891" lon="2.5512205106291246"><ele>765.0</ele><time>2026-04-02T09:07:37Z</time></trkpt><trkpt lat="43.56760565423905" lon="2.55155684528956"><ele>765.0</ele><time>2026-04-02T09:07:38Z</time></trkpt><trkpt lat="43.56761764449777" lon="2.5518662305138213"><ele>765.0</ele><time>2026-04-02T09:07:39Z</time></trkpt><trkpt lat="43.56762321087844" lon="2.552153488133057"><ele>765.0</ele><time>2026-04-02T09:07:40Z</time></trkpt><trkpt lat="43.56754786132994" lon="2.5524099363329342"><ele>765.6666666666666</ele><time>2026-04-02T09:07:41Z</time></trkpt><trkpt lat="43.56743610142067" lon="2.552635699020738"><ele>766.3333333333333</ele><time>2026-04-02T09:07:42Z</time></trkpt><trkpt lat="43.567276743809046" lon="2.5528257799426703"><ele>767.0</ele><time>2026-04-02T09:07:43Z</time></trkpt><trkpt lat="43.56706777250062" lon="2.5529682152071556"><ele>762.0</ele><time>2026-04-02T09:07:44Z</time></trkpt><trkpt lat="43.56683136143591" lon="2.553083127747975"><ele>757.0</ele><time>2026-04-02T09:07:45Z</time></trkpt><trkpt lat="43.56660404126817" lon="2.553212667313503"><ele>757.0</ele><time>2026-04-02T09:07:46Z</time></trkpt><trkpt lat="43.56640698040395" lon="2.5533351651305685"><ele>757.0</ele><time>2026-04-02T09:07:47Z</time></trkpt><trkpt lat="43.566240001531035" lon="2.5535296270867476"><ele>757.0</ele><time>2026-04-02T09:07:48Z</time></trkpt><trkpt lat="43.56610489563106" lon="2.5537710297639995"><ele>756.5</ele><time>2026-04-02T09:07:49Z</time></trkpt><trkpt lat="43.56600720990257" lon="2.5540615786003356"><ele>756.0</ele><time>2026-04-02T09:07:50Z</time></trkpt><trkpt lat="43.56595504720263" lon="2.5544063022555776"><ele>753.5</ele><time>2026-04-02T09:07:51Z</time></trkpt><trkpt lat="43.56591052934949" lon="2.5547838899344635"><ele>751.0</ele><time>2026-04-02T09:07:52Z</time></trkpt><trkpt lat="43.56584098921801" lon="2.55517942695222"><ele>747.0</ele><time>2026-04-02T09:07:53Z</time></trkpt><trkpt lat="43.5657763420767" lon="2.5555765833562"><ele>743.0</ele><time>2026-04-02T09:07:54Z</time></trkpt><trkpt lat="43.565719030532044" lon="2.5559399428490854"><ele>740.0</ele><time>2026-04-02T09:07:55Z</time></trkpt><trkpt lat="43.5656578267117" lon="2.556306114082075"><ele>737.0</ele><time>2026-04-02T09:07:56Z</time></trkpt><trkpt lat="43.56554018799013" lon="2.5566650233809436"><ele>737.0</ele><time>2026-04-02T09:07:57Z</time></trkpt><trkpt lat="43.565396908351055" lon="2.5569707810294404"><ele>737.0</ele><time>2026-04-02T09:07:58Z</time></trkpt><trkpt lat="43.565248375295404" lon="2.5572360671327505"><ele>738.0</ele><time>2026-04-02T09:07:59Z</time></trkpt><trkpt lat="43.56509466824149" lon="2.557441181587213"><ele>739.0</ele><time>2026-04-02T09:08:00Z</time></trkpt><trkpt lat="43.564974117016995" lon="2.5576340428742204"><ele>740.0</ele><time>2026-04-02T09:08:01Z</time></trkpt><trkpt lat="43.564870993874074" lon="2.5578015520040283"><ele>740.0</ele><time>2026-04-02T09:08:02Z</time></trkpt><trkpt lat="43.56459144643807" lon="2.557748930195529"><ele>740.0</ele><time>2026-04-02T09:08:03Z</time></trkpt><trkpt lat="43.56443705429618" lon="2.5578209152603746"><ele>740.0</ele><time>2026-04-02T09:08:04Z</time></trkpt><trkpt lat="43.56427475072774" lon="2.557903494773347"><ele>744.0</ele><time>2026-04-02T09:08:05Z</time></trkpt><trkpt lat="43.56410747936393" lon="2.557990562195071"><ele>748.0</ele><time>2026-04-02T09:08:06Z</time></trkpt><trkpt lat="43.563942805643606" lon="2.55807756223087"><ele>752.0</ele><time>2026-04-02T09:08:07Z</time></trkpt><trkpt lat="43.56378806475497" lon="2.5581593959417552"><ele>751.5</ele><time>2026-04-02T09:08:08Z</time></trkpt><trkpt lat="43.56366095051933" lon="2.558262938247336"><ele>751.0</ele><time>2026-04-02T09:08:09Z</time></trkpt><trkpt lat="43.56357225563773" lon="2.55840506074464"><ele>750.5</ele><time>2026-04-02T09:08:10Z</time></trkpt><trkpt lat="43.56351186449341" lon="2.5585648934555327"><ele>750.0</ele><time>2026-04-02T09:08:11Z</time></trkpt><trkpt lat="43.56346875737547" lon="2.55871722588637"><ele>750.0</ele><time>2026-04-02T09:08:12Z</time></trkpt><trkpt lat="43.56342762312242" lon="2.558857391785903"><ele>750.0</ele><time>2026-04-02T09:08:13Z</time></trkpt><trkpt lat="43.56338698299232" lon="2.559008725669265"><ele>750.0</ele><time>2026-04-02T09:08:14Z</time></trkpt><trkpt lat="43.56336364086487" lon="2.5591844960491024"><ele>750.0</ele><time>2026-04-02T09:08:15Z</time></trkpt><trkpt lat="43.56336978303255" lon="2.559368668391003"><ele>751.6666666666666</ele><time>2026-04-02T09:08:16Z</time></trkpt><trkpt lat="43.563399973705664" lon="2.5595792070351306"><ele>753.3333333333333</ele><time>2026-04-02T09:08:17Z</time></trkpt><trkpt lat="43.56342471396359" lon="2.559794192813477"><ele>755.0</ele><time>2026-04-02T09:08:18Z</time></trkpt><trkpt lat="43.56343109808568" lon="2.5599832261577937"><ele>755.0</ele><time>2026-04-02T09:08:19Z</time></trkpt><trkpt lat="43.5634308899918" lon="2.560153715572394"><ele>755.0</ele><time>2026-04-02T09:08:20Z</time></trkpt><trkpt lat="43.56344135319967" lon="2.5603114532436186"><ele>755.0</ele><time>2026-04-02T09:08:21Z</time></trkpt><trkpt lat="43.56345127974679" lon="2.5604584712093597"><ele>755.0</ele><time>2026-04-02T09:08:22Z</time></trkpt><trkpt lat="43.56343857983356" lon="2.5606115401449414"><ele>755.5</ele><time>2026-04-02T09:08:23Z</time></trkpt><trkpt lat="43.56341128933747" lon="2.5607776172638106"><ele>756.0</ele><time>2026-04-02T09:08:24Z</time></trkpt><trkpt lat="43.56338479149896" lon="2.560959584329078"><ele>756.5</ele><time>2026-04-02T09:08:25Z</time></trkpt><trkpt lat="43.56335982276379" lon="2.561143184405862"><ele>757.0</ele><time>2026-04-02T09:08:26Z</time></trkpt><trkpt lat="43.56332772615895" lon="2.5613276310726265"><ele>757.5</ele><time>2026-04-02T09:08:27Z</time></trkpt><trkpt lat="43.56330100038397" lon="2.561513384505884"><ele>758.0</ele><time>2026-04-02T09:08:28Z</time></trkpt><trkpt lat="43.56329083267525" lon="2.5617039310870875"><ele>758.5</ele><time>2026-04-02T09:08:29Z</time></trkpt><trkpt lat="43.563304627070245" lon="2.561909439325972"><ele>759.0</ele><time>2026-04-02T09:08:30Z</time></trkpt><trkpt lat="43.56334305444113" lon="2.562111512487275"><ele>759.0</ele><time>2026-04-02T09:08:31Z</time></trkpt><trkpt lat="43.563413948563706" lon="2.562293677436847"><ele>759.0</ele><time>2026-04-02T09:08:32Z</time></trkpt><trkpt lat="43.56349419906353" lon="2.562471010727329"><ele>759.0</ele><time>2026-04-02T09:08:33Z</time></trkpt><trkpt lat="43.563561677606984" lon="2.562643143256029"><ele>759.0</ele><time>2026-04-02T09:08:34Z</time></trkpt><trkpt lat="43.5636221072179" lon="2.5628074652479267"><ele>758.25</ele><time>2026-04-02T09:08:35Z</time></trkpt><trkpt lat="43.563688311239055" lon="2.5629604230088403"><ele>757.5</ele><time>2026-04-02T09:08:36Z</time></trkpt><trkpt lat="43.563764448336364" lon="2.563108489834864"><ele>756.75</ele><time>2026-04-02T09:08:37Z</time></trkpt><trkpt lat="43.56387535717709" lon="2.5632334004990125"><ele>756.0</ele><time>2026-04-02T09:08:38Z</time></trkpt><trkpt lat="43.56398971394067" lon="2.5633613465094407"><ele>757.0</ele><time>2026-04-02T09:08:39Z</time></trkpt><trkpt lat="43.56410376877293" lon="2.563483103703619"><ele>758.0</ele><time>2026-04-02T09:08:40Z</time></trkpt><trkpt lat="43.56421862469929" lon="2.563599052130035"><ele>759.0</ele><time>2026-04-02T09:08:41Z</time></trkpt><trkpt lat="43.56432283052259" lon="2.5637087415439614"><ele>760.0</ele><time>2026-04-02T09:08:42Z</time></trkpt><trkpt lat="43.56442425879615" lon="2.563813033144682"><ele>760.0</ele><time>2026-04-02T09:08:43Z</time></trkpt><trkpt lat="43.56452574494162" lon="2.5639134210915833"><ele>760.0</ele><time>2026-04-02T09:08:44Z</time></trkpt><trkpt lat="43.56463464250449" lon="2.564013125252905"><ele>760.0</ele><time>2026-04-02T09:08:45Z</time></trkpt><trkpt lat="43.56473905919023" lon="2.564099065514465"><ele>760.0</ele><time>2026-04-02T09:08:46Z</time></trkpt><trkpt lat="43.56486778536787" lon="2.564197171921941"><ele>759.6666666666667</ele><time>2026-04-02T09:08:47Z</time></trkpt><trkpt lat="43.565005960630714" lon="2.5643213215663825"><ele>759.3333333333334</ele><time>2026-04-02T09:08:48Z</time></trkpt><trkpt lat="43.56514414067272" lon="2.564482222455414"><ele>759.0</ele><time>2026-04-02T09:08:49Z</time></trkpt><trkpt lat="43.56527084531309" lon="2.5646494583437605"><ele>759.0</ele><time>2026-04-02T09:08:50Z</time></trkpt><trkpt lat="43.56546916170917" lon="2.564820148444157"><ele>759.0</ele><time>2026-04-02T09:08:51Z</time></trkpt><trkpt lat="43.565637697922384" lon="2.5650044348440444"><ele>759.0</ele><time>2026-04-02T09:08:52Z</time></trkpt><trkpt lat="43.56580095851715" lon="2.5651897721249757"><ele>761.6666666666666</ele><time>2026-04-02T09:08:53Z</time></trkpt><trkpt lat="43.56595954530541" lon="2.565367282562168"><ele>764.3333333333333</ele><time>2026-04-02T09:08:54Z</time></trkpt><trkpt lat="43.566137443394794" lon="2.5655057183751833"><ele>767.0</ele><time>2026-04-02T09:08:55Z</time></trkpt><trkpt lat="43.56634483608683" lon="2.5655915132565807"><ele>767.6666666666666</ele><time>2026-04-02T09:08:56Z</time></trkpt><trkpt lat="43.56655548861563" lon="2.565671906538452"><ele>768.3333333333333</ele><time>2026-04-02T09:08:57Z</time></trkpt><trkpt lat="43.56678062871983" lon="2.5657376480000202"><ele>769.0</ele><time>2026-04-02T09:08:58Z</time></trkpt><trkpt lat="43.56699424033995" lon="2.565790069093098"><ele>769.3333333333333</ele><time>2026-04-02T09:08:59Z</time></trkpt><trkpt lat="43.567179360104724" lon="2.565851423093511"><ele>769.6666666666667</ele><time>2026-04-02T09:09:00Z</time></trkpt><trkpt lat="43.567337297338625" lon="2.5659194204396596"><ele>770.0</ele><time>2026-04-02T09:09:01Z</time></trkpt><trkpt lat="43.56748515924005" lon="2.5660085597098505"><ele>770.0</ele><time>2026-04-02T09:09:02Z</time></trkpt><trkpt lat="43.567614619294616" lon="2.56615933806831"><ele>770.0</ele><time>2026-04-02T09:09:03Z</time></trkpt><trkpt lat="43.56768084515791" lon="2.5663556437731847"><ele>770.0</ele><time>2026-04-02T09:09:04Z</time></trkpt><trkpt lat="43.56769163325178" lon="2.566583179507999"><ele>770.6666666666667</ele><time>2026-04-02T09:09:05Z</time></trkpt><trkpt lat="43.56763103471431" lon="2.566810960352921"><ele>771.3333333333333</ele><time>2026-04-02T09:09:06Z</time></trkpt><trkpt lat="43.56744966415455" lon="2.5669600172391576"><ele>772.0</ele><time>2026-04-02T09:09:07Z</time></trkpt><trkpt lat="43.567336658018505" lon="2.567190595311329"><ele>772.0</ele><time>2026-04-02T09:09:08Z</time></trkpt><trkpt lat="43.5672194164208" lon="2.567433292772037"><ele>772.0</ele><time>2026-04-02T09:09:09Z</time></trkpt><trkpt lat="43.56713321155713" lon="2.5676715413265674"><ele>772.0</ele><time>2026-04-02T09:09:10Z</time></trkpt><trkpt lat="43.56706017500897" lon="2.567886267840484"><ele>772.6666666666666</ele><time>2026-04-02T09:09:11Z</time></trkpt><trkpt lat="43.567089361768566" lon="2.5681109509032454"><ele>773.3333333333333</ele><time>2026-04-02T09:09:12Z</time></trkpt><trkpt lat="43.5671375171635" lon="2.5683088501812814"><ele>774.0</ele><time>2026-04-02T09:09:13Z</time></trkpt><trkpt lat="43.56728896845995" lon="2.568451992452338"><ele>774.0</ele><time>2026-04-02T09:09:14Z</time></trkpt><trkpt lat="43.567421573449565" lon="2.5686455372071095"><ele>774.0</ele><time>2026-04-02T09:09:15Z</time></trkpt><trkpt lat="43.56758034846749" lon="2.568828086438901"><ele>774.0</ele><time>2026-04-02T09:09:16Z</time></trkpt><trkpt lat="43.56772745898734" lon="2.569045195448062"><ele>774.5</ele><time>2026-04-02T09:09:17Z</time></trkpt><trkpt lat="43.56786617193787" lon="2.5693002713773834"><ele>775.0</ele><time>2026-04-02T09:09:18Z</time></trkpt><trkpt lat="43.568017388233336" lon="2.56956685867506"><ele>778.5</ele><time>2026-04-02T09:09:19Z</time></trkpt><trkpt lat="43.56820081369516" lon="2.5698382472429957"><ele>782.0</ele><time>2026-04-02T09:09:20Z</time></trkpt><trkpt lat="43.56837574187355" lon="2.570071280836294"><ele>782.0</ele><time>2026-04-02T09:09:21Z</time></trkpt><trkpt lat="43.56857171091779" lon="2.570282861897697"><ele>782.0</ele><time>2026-04-02T09:09:22Z</time></trkpt><trkpt lat="43.56878594212331" lon="2.570496760138811"><ele>785.5</ele><time>2026-04-02T09:09:23Z</time></trkpt><trkpt lat="43.56897904554633" lon="2.570717158978616"><ele>789.0</ele><time>2026-04-02T09:09:24Z</time></trkpt><trkpt lat="43.56917130556219" lon="2.5709244494095422"><ele>789.0</ele><time>2026-04-02T09:09:25Z</time></trkpt><trkpt lat="43.56935925938844" lon="2.571118136406757"><ele>789.0</ele><time>2026-04-02T09:09:26Z</time></trkpt><trkpt lat="43.5695422859749" lon="2.5712910824884028"><ele>791.3333333333333</ele><time>2026-04-02T09:09:27Z</time></trkpt><trkpt lat="43.56969075042843" lon="2.571461065198133"><ele>793.6666666666666</ele><time>2026-04-02T09:09:28Z</time></trkpt><trkpt lat="43.56983092573588" lon="2.5716168159390165"><ele>796.0</ele><time>2026-04-02T09:09:29Z</time></trkpt><trkpt lat="43.56993939922349" lon="2.571789791756286"><ele>796.0</ele><time>2026-04-02T09:09:30Z</time></trkpt><trkpt lat="43.57001734144091" lon="2.571975256658832"><ele>796.0</ele><time>2026-04-02T09:09:31Z</time></trkpt><trkpt lat="43.57009366543046" lon="2.572203054942405"><ele>796.0</ele><time>2026-04-02T09:09:32Z</time></trkpt><trkpt lat="43.57018980108456" lon="2.5724418735796517"><ele>798.0</ele><time>2026-04-02T09:09:33Z</time></trkpt><trkpt lat="43.570309800483145" lon="2.572633239745802"><ele>800.0</ele><time>2026-04-02T09:09:34Z</time></trkpt><trkpt lat="43.570341380654284" lon="2.572855468311342"><ele>802.0</ele><time>2026-04-02T09:09:35Z</time></trkpt><trkpt lat="43.5706417489398" lon="2.5727480176702042"><ele>804.0</ele><time>2026-04-02T09:09:36Z</time></trkpt><trkpt lat="43.570828112925284" lon="2.5726786665393346"><ele>806.0</ele><time>2026-04-02T09:09:37Z</time></trkpt><trkpt lat="43.5710205866027" lon="2.5725904898110525"><ele>808.0</ele><time>2026-04-02T09:09:38Z</time></trkpt><trkpt lat="43.57120497005169" lon="2.572431095921044"><ele>811.5</ele><time>2026-04-02T09:09:39Z</time></trkpt><trkpt lat="43.571396420812846" lon="2.572255951115708"><ele>815.0</ele><time>2026-04-02T09:09:40Z</time></trkpt><trkpt lat="43.57160221312866" lon="2.5720923430757665"><ele>815.5</ele><time>2026-04-02T09:09:41Z</time></trkpt><trkpt lat="43.57181599329627" lon="2.571921408817039"><ele>816.0</ele><time>2026-04-02T09:09:42Z</time></trkpt><trkpt lat="43.57202704451147" lon="2.5717575601648215"><ele>816.0</ele><time>2026-04-02T09:09:43Z</time></trkpt><trkpt lat="43.57221946081522" lon="2.5716118414531914"><ele>816.0</ele><time>2026-04-02T09:09:44Z</time></trkpt><trkpt lat="43.57238759475876" lon="2.571481487355821"><ele>816.0</ele><time>2026-04-02T09:09:45Z</time></trkpt><trkpt lat="43.57254280300461" lon="2.571371171475604"><ele>816.0</ele><time>2026-04-02T09:09:46Z</time></trkpt><trkpt lat="43.572723941675136" lon="2.571345349377876"><ele>816.0</ele><time>2026-04-02T09:09:47Z</time></trkpt><trkpt lat="43.57288396792038" lon="2.571399983057956"><ele>816.0</ele><time>2026-04-02T09:09:48Z</time></trkpt><trkpt lat="43.57305380886971" lon="2.571464442944784"><ele>817.0</ele><time>2026-04-02T09:09:49Z</time></trkpt><trkpt lat="43.57321293371205" lon="2.571623549508689"><ele>818.0</ele><time>2026-04-02T09:09:50Z</time></trkpt><trkpt lat="43.57337978655673" lon="2.5718147223231784"><ele>819.0</ele><time>2026-04-02T09:09:51Z</time></trkpt><trkpt lat="43.57357223578216" lon="2.5720110057214627"><ele>821.5</ele><time>2026-04-02T09:09:52Z</time></trkpt><trkpt lat="43.573803802723" lon="2.572163319916429"><ele>824.0</ele><time>2026-04-02T09:09:53Z</time></trkpt><trkpt lat="43.574064663074054" lon="2.572284225943278"><ele>824.0</ele><time>2026-04-02T09:09:54Z</time></trkpt><trkpt lat="43.57432820746296" lon="2.572396774248452"><ele>824.0</ele><time>2026-04-02T09:09:55Z</time></trkpt><trkpt lat="43.57457387447877" lon="2.572499377567658"><ele>823.5</ele><time>2026-04-02T09:09:56Z</time></trkpt><trkpt lat="43.574845947742254" lon="2.5725926077474264"><ele>823.0</ele><time>2026-04-02T09:09:57Z</time></trkpt><trkpt lat="43.5751398424744" lon="2.5726727001481646"><ele>823.5</ele><time>2026-04-02T09:09:58Z</time></trkpt><trkpt lat="43.57544600126602" lon="2.572730181446146"><ele>824.0</ele><time>2026-04-02T09:09:59Z</time></trkpt><trkpt lat="43.57575489405695" lon="2.5727965402350788"><ele>822.0</ele><time>2026-04-02T09:10:00Z</time></trkpt><trkpt lat="43.57607377927504" lon="2.5728651205724926"><ele>820.0</ele><time>2026-04-02T09:10:01Z</time></trkpt><trkpt lat="43.5763889501813" lon="2.5729350314923796"><ele>824.5</ele><time>2026-04-02T09:10:02Z</time></trkpt><trkpt lat="43.57668705804261" lon="2.573006461969753"><ele>829.0</ele><time>2026-04-02T09:10:03Z</time></trkpt><trkpt lat="43.57696263546264" lon="2.573081322012655"><ele>836.5</ele><time>2026-04-02T09:10:04Z</time></trkpt><trkpt lat="43.5772308567791" lon="2.573141311117682"><ele>844.0</ele><time>2026-04-02T09:10:05Z</time></trkpt><trkpt lat="43.57748539467624" lon="2.573177202856368"><ele>844.0</ele><time>2026-04-02T09:10:06Z</time></trkpt><trkpt lat="43.57772951371065" lon="2.5732061798498065"><ele>844.0</ele><time>2026-04-02T09:10:07Z</time></trkpt><trkpt lat="43.57795460250868" lon="2.5732321683847617"><ele>844.6666666666666</ele><time>2026-04-02T09:10:08Z</time></trkpt><trkpt lat="43.578155261314905" lon="2.573263719826964"><ele>845.3333333333333</ele><time>2026-04-02T09:10:09Z</time></trkpt><trkpt lat="43.578362671395226" lon="2.5732873804831966"><ele>846.0</ele><time>2026-04-02T09:10:10Z</time></trkpt><trkpt lat="43.578592542612675" lon="2.573296395743242"><ele>844.3333333333333</ele><time>2026-04-02T09:10:11Z</time></trkpt><trkpt lat="43.57880708170615" lon="2.573292796813656"><ele>842.6666666666666</ele><time>2026-04-02T09:10:12Z</time></trkpt><trkpt lat="43.579020712954865" lon="2.5732722255356473"><ele>841.0</ele><time>2026-04-02T09:10:13Z</time></trkpt><trkpt lat="43.57922805188293" lon="2.5733032334202033"><ele>841.0</ele><time>2026-04-02T09:10:14Z</time></trkpt><trkpt lat="43.57942357526466" lon="2.5733738931316354"><ele>841.0</ele><time>2026-04-02T09:10:15Z</time></trkpt><trkpt lat="43.579599128436364" lon="2.5734121799181833"><ele>841.0</ele><time>2026-04-02T09:10:16Z</time></trkpt><trkpt lat="43.57976812380325" lon="2.5733687832367895"><ele>839.6666666666666</ele><time>2026-04-02T09:10:17Z</time></trkpt><trkpt lat="43.57992452340544" lon="2.573271104156236"><ele>838.3333333333333</ele><time>2026-04-02T09:10:18Z</time></trkpt><trkpt lat="43.58010162723289" lon="2.5732731508911946"><ele>837.0</ele><time>2026-04-02T09:10:19Z</time></trkpt><trkpt lat="43.58030428604164" lon="2.573323996499554"><ele>832.0</ele><time>2026-04-02T09:10:20Z</time></trkpt><trkpt lat="43.58048841787049" lon="2.573379237278439"><ele>827.0</ele><time>2026-04-02T09:10:21Z</time></trkpt><trkpt lat="43.580639102337884" lon="2.573431081007498"><ele>822.0</ele><time>2026-04-02T09:10:22Z</time></trkpt><trkpt lat="43.58075793320393" lon="2.573460825487077"><ele>824.5</ele><time>2026-04-02T09:10:23Z</time></trkpt><trkpt lat="43.58078649313933" lon="2.5738754287110224"><ele>827.0</ele><time>2026-04-02T09:10:24Z</time></trkpt><trkpt lat="43.580775133315484" lon="2.5741513840569734"><ele>827.0</ele><time>2026-04-02T09:10:25Z</time></trkpt><trkpt lat="43.58072891925709" lon="2.574456162612469"><ele>827.0</ele><time>2026-04-02T09:10:26Z</time></trkpt><trkpt lat="43.58067749844214" lon="2.5747825074990867"><ele>825.0</ele><time>2026-04-02T09:10:27Z</time></trkpt><trkpt lat="43.580640366166534" lon="2.5751118650766522"><ele>823.0</ele><time>2026-04-02T09:10:28Z</time></trkpt><trkpt lat="43.58060451554362" lon="2.5753965847963602"><ele>821.3333333333333</ele><time>2026-04-02T09:10:29Z</time></trkpt><trkpt lat="43.58057618868873" lon="2.575649136979726"><ele>819.6666666666667</ele><time>2026-04-02T09:10:30Z</time></trkpt><trkpt lat="43.58053060137176" lon="2.5758954753804426"><ele>818.0</ele><time>2026-04-02T09:10:31Z</time></trkpt><trkpt lat="43.580454655321304" lon="2.5761170779297577"><ele>819.75</ele><time>2026-04-02T09:10:32Z</time></trkpt><trkpt lat="43.580389366664306" lon="2.576275715470275"><ele>821.5</ele><time>2026-04-02T09:10:33Z</time></trkpt><trkpt lat="43.58039020096599" lon="2.5764047228381064"><ele>823.25</ele><time>2026-04-02T09:10:34Z</time></trkpt><trkpt lat="43.58046683687343" lon="2.5765349395293353"><ele>825.0</ele><time>2026-04-02T09:10:35Z</time></trkpt><trkpt lat="43.580605847687146" lon="2.5766140506909543"><ele>825.0</ele><time>2026-04-02T09:10:36Z</time></trkpt><trkpt lat="43.58078038064729" lon="2.5766331831529814"><ele>825.0</ele><time>2026-04-02T09:10:37Z</time></trkpt><trkpt lat="43.580957440116215" lon="2.5765656608264296"><ele>825.0</ele><time>2026-04-02T09:10:38Z</time></trkpt><trkpt lat="43.58113105236115" lon="2.57642287793778"><ele>824.0</ele><time>2026-04-02T09:10:39Z</time></trkpt><trkpt lat="43.58129679407198" lon="2.5762755462476203"><ele>823.0</ele><time>2026-04-02T09:10:40Z</time></trkpt><trkpt lat="43.58144187306037" lon="2.576185802948719"><ele>822.0</ele><time>2026-04-02T09:10:41Z</time></trkpt><trkpt lat="43.58158263036387" lon="2.576113426733328"><ele>822.0</ele><time>2026-04-02T09:10:42Z</time></trkpt><trkpt lat="43.58171982681941" lon="2.576125296666624"><ele>822.0</ele><time>2026-04-02T09:10:43Z</time></trkpt><trkpt lat="43.58184167274904" lon="2.576235487006894"><ele>822.0</ele><time>2026-04-02T09:10:44Z</time></trkpt><trkpt lat="43.58192952529817" lon="2.576427994511434"><ele>822.0</ele><time>2026-04-02T09:10:45Z</time></trkpt><trkpt lat="43.58197917371619" lon="2.576681796039557"><ele>822.0</ele><time>2026-04-02T09:10:46Z</time></trkpt><trkpt lat="43.58200398177163" lon="2.5769584476828316"><ele>822.0</ele><time>2026-04-02T09:10:47Z</time></trkpt><trkpt lat="43.58202654564611" lon="2.5771946622452186"><ele>822.0</ele><time>2026-04-02T09:10:48Z</time></trkpt><trkpt lat="43.58209980296065" lon="2.577361377532947"><ele>817.3333333333333</ele><time>2026-04-02T09:10:49Z</time></trkpt><trkpt lat="43.58220961919971" lon="2.5775044586783658"><ele>812.6666666666666</ele><time>2026-04-02T09:10:50Z</time></trkpt><trkpt lat="43.58236333376011" lon="2.57759321609323"><ele>808.0</ele><time>2026-04-02T09:10:51Z</time></trkpt><trkpt lat="43.58254657714412" lon="2.5776355696575144"><ele>808.0</ele><time>2026-04-02T09:10:52Z</time></trkpt><trkpt lat="43.582671069300105" lon="2.5776964814852077"><ele>808.0</ele><time>2026-04-02T09:10:53Z</time></trkpt><trkpt lat="43.58277936782462" lon="2.577833120361577"><ele>808.0</ele><time>2026-04-02T09:10:54Z</time></trkpt><trkpt lat="43.58288906340152" lon="2.5780280638972344"><ele>806.3333333333333</ele><time>2026-04-02T09:10:55Z</time></trkpt><trkpt lat="43.58297951781704" lon="2.5782808836122704"><ele>804.6666666666667</ele><time>2026-04-02T09:10:56Z</time></trkpt><trkpt lat="43.583063667671695" lon="2.578543131088576"><ele>803.0</ele><time>2026-04-02T09:10:57Z</time></trkpt><trkpt lat="43.583154067472854" lon="2.578837779831313"><ele>803.0</ele><time>2026-04-02T09:10:58Z</time></trkpt><trkpt lat="43.583236767396116" lon="2.579158583055593"><ele>803.0</ele><time>2026-04-02T09:10:59Z</time></trkpt><trkpt lat="43.58332308637541" lon="2.5794688025198855"><ele>806.0</ele><time>2026-04-02T09:11:00Z</time></trkpt><trkpt lat="43.583395498482645" lon="2.5797707401695984"><ele>809.0</ele><time>2026-04-02T09:11:01Z</time></trkpt><trkpt lat="43.583456704567105" lon="2.5800679322548215"><ele>808.5</ele><time>2026-04-02T09:11:02Z</time></trkpt><trkpt lat="43.58353611381363" lon="2.5803541217957"><ele>808.0</ele><time>2026-04-02T09:11:03Z</time></trkpt><trkpt lat="43.58361082675487" lon="2.580654558000551"><ele>808.0</ele><time>2026-04-02T09:11:04Z</time></trkpt><trkpt lat="43.583655383301526" lon="2.580975127837168"><ele>808.0</ele><time>2026-04-02T09:11:05Z</time></trkpt><trkpt lat="43.58366263052456" lon="2.581283797189633"><ele>806.0</ele><time>2026-04-02T09:11:06Z</time></trkpt><trkpt lat="43.583656848462304" lon="2.581561401317606"><ele>804.0</ele><time>2026-04-02T09:11:07Z</time></trkpt><trkpt lat="43.58362463817324" lon="2.5818206343035386"><ele>802.0</ele><time>2026-04-02T09:11:08Z</time></trkpt><trkpt lat="43.58355265193927" lon="2.5820855278018446"><ele>799.6666666666666</ele><time>2026-04-02T09:11:09Z</time></trkpt><trkpt lat="43.58344430070347" lon="2.582362947545607"><ele>797.3333333333333</ele><time>2026-04-02T09:11:10Z</time></trkpt><trkpt lat="43.58335554992683" lon="2.582585778262788"><ele>795.0</ele><time>2026-04-02T09:11:11Z</time></trkpt><trkpt lat="43.583307113945" lon="2.582759438861265"><ele>795.4</ele><time>2026-04-02T09:11:12Z</time></trkpt><trkpt lat="43.58327507018989" lon="2.5828987644844923"><ele>795.8</ele><time>2026-04-02T09:11:13Z</time></trkpt><trkpt lat="43.58329216611861" lon="2.5830353451815427"><ele>796.2</ele><time>2026-04-02T09:11:14Z</time></trkpt><trkpt lat="43.58335891766982" lon="2.5831485583109126"><ele>796.6</ele><time>2026-04-02T09:11:15Z</time></trkpt><trkpt lat="43.58347674758418" lon="2.5831969217594244"><ele>797.0</ele><time>2026-04-02T09:11:16Z</time></trkpt><trkpt lat="43.58361894108269" lon="2.5831688748998496"><ele>792.6666666666667</ele><time>2026-04-02T09:11:17Z</time></trkpt><trkpt lat="43.58379127562464" lon="2.583075135570966"><ele>788.3333333333333</ele><time>2026-04-02T09:11:18Z</time></trkpt><trkpt lat="43.58395210970581" lon="2.582980705313218"><ele>784.0</ele><time>2026-04-02T09:11:19Z</time></trkpt><trkpt lat="43.58409410545068" lon="2.582949242217052"><ele>784.0</ele><time>2026-04-02T09:11:20Z</time></trkpt><trkpt lat="43.584222137796964" lon="2.5829985262862607"><ele>784.0</ele><time>2026-04-02T09:11:21Z</time></trkpt><trkpt lat="43.58433279571962" lon="2.583108773604523"><ele>784.0</ele><time>2026-04-02T09:11:22Z</time></trkpt><trkpt lat="43.58443335630319" lon="2.583247862703121"><ele>784.0</ele><time>2026-04-02T09:11:23Z</time></trkpt><trkpt lat="43.58453564950696" lon="2.5833916493519586"><ele>779.0</ele><time>2026-04-02T09:11:24Z</time></trkpt><trkpt lat="43.58463500546029" lon="2.5835488273171987"><ele>774.0</ele><time>2026-04-02T09:11:25Z</time></trkpt><trkpt lat="43.58473035842867" lon="2.5837199546532714"><ele>769.0</ele><time>2026-04-02T09:11:26Z</time></trkpt><trkpt lat="43.58484166117134" lon="2.5839217959469485"><ele>769.0</ele><time>2026-04-02T09:11:27Z</time></trkpt><trkpt lat="43.584956485232986" lon="2.5841238256135846"><ele>769.0</ele><time>2026-04-02T09:11:28Z</time></trkpt><trkpt lat="43.58503790891457" lon="2.584367764571288"><ele>769.0</ele><time>2026-04-02T09:11:29Z</time></trkpt><trkpt lat="43.58510159714351" lon="2.584603040573154"><ele>770.0</ele><time>2026-04-02T09:11:30Z</time></trkpt><trkpt lat="43.585150767577254" lon="2.5848680649905122"><ele>771.0</ele><time>2026-04-02T09:11:31Z</time></trkpt><trkpt lat="43.58517961901275" lon="2.585158699356209"><ele>772.0</ele><time>2026-04-02T09:11:32Z</time></trkpt><trkpt lat="43.58520584183793" lon="2.585459634360205"><ele>772.0</ele><time>2026-04-02T09:11:33Z</time></trkpt><trkpt lat="43.58522737549348" lon="2.585752471361861"><ele>772.0</ele><time>2026-04-02T09:11:34Z</time></trkpt><trkpt lat="43.58524865520108" lon="2.5860404755101873"><ele>772.0</ele><time>2026-04-02T09:11:35Z</time></trkpt><trkpt lat="43.585211063683445" lon="2.586300022169294"><ele>770.3333333333333</ele><time>2026-04-02T09:11:36Z</time></trkpt><trkpt lat="43.585152352035784" lon="2.5865236203784048"><ele>768.6666666666666</ele><time>2026-04-02T09:11:37Z</time></trkpt><trkpt lat="43.58514402000546" lon="2.586722723188316"><ele>767.0</ele><time>2026-04-02T09:11:38Z</time></trkpt><trkpt lat="43.58517763721267" lon="2.5869441413032805"><ele>769.0</ele><time>2026-04-02T09:11:39Z</time></trkpt><trkpt lat="43.58527789965786" lon="2.587194304336364"><ele>771.0</ele><time>2026-04-02T09:11:40Z</time></trkpt><trkpt lat="43.585398250071535" lon="2.5874164584790367"><ele>773.0</ele><time>2026-04-02T09:11:41Z</time></trkpt><trkpt lat="43.58550841884199" lon="2.587614709287198"><ele>765.3333333333334</ele><time>2026-04-02T09:11:42Z</time></trkpt><trkpt lat="43.585599359318834" lon="2.5878034392277423"><ele>757.6666666666667</ele><time>2026-04-02T09:11:43Z</time></trkpt><trkpt lat="43.5856564357703" lon="2.58801199004039"><ele>750.0</ele><time>2026-04-02T09:11:44Z</time></trkpt><trkpt lat="43.58569964222273" lon="2.5882399371006506"><ele>750.0</ele><time>2026-04-02T09:11:45Z</time></trkpt><trkpt lat="43.58571767142123" lon="2.588479127158233"><ele>750.0</ele><time>2026-04-02T09:11:46Z</time></trkpt><trkpt lat="43.585716617085666" lon="2.5886986010879003"><ele>750.0</ele><time>2026-04-02T09:11:47Z</time></trkpt><trkpt lat="43.58568784792604" lon="2.588887034204903"><ele>749.0</ele><time>2026-04-02T09:11:48Z</time></trkpt><trkpt lat="43.585638026504824" lon="2.5890675799948655"><ele>748.0</ele><time>2026-04-02T09:11:49Z</time></trkpt><trkpt lat="43.58555749283636" lon="2.589205127766213"><ele>747.0</ele><time>2026-04-02T09:11:50Z</time></trkpt><trkpt lat="43.585459783122175" lon="2.589304576894068"><ele>746.0</ele><time>2026-04-02T09:11:51Z</time></trkpt><trkpt lat="43.585383235149614" lon="2.589381217179097"><ele>749.8333333333333</ele><time>2026-04-02T09:11:52Z</time></trkpt><trkpt lat="43.58531964249675" lon="2.5894584753533016"><ele>753.6666666666666</ele><time>2026-04-02T09:11:53Z</time></trkpt><trkpt lat="43.585264838883425" lon="2.5895306974238883"><ele>757.5</ele><time>2026-04-02T09:11:54Z</time></trkpt><trkpt lat="43.58520699946237" lon="2.589604135559553"><ele>761.3333333333333</ele><time>2026-04-02T09:11:55Z</time></trkpt><trkpt lat="43.585146959165314" lon="2.589701757368586"><ele>765.1666666666666</ele><time>2026-04-02T09:11:56Z</time></trkpt><trkpt lat="43.58510533396914" lon="2.589802208499295"><ele>769.0</ele><time>2026-04-02T09:11:57Z</time></trkpt><trkpt lat="43.58509711430771" lon="2.5899195294716093"><ele>769.0</ele><time>2026-04-02T09:11:58Z</time></trkpt><trkpt lat="43.585142460190326" lon="2.590041748822858"><ele>769.0</ele><time>2026-04-02T09:11:59Z</time></trkpt><trkpt lat="43.58522118592831" lon="2.5901115541146194"><ele>769.0</ele><time>2026-04-02T09:12:00Z</time></trkpt><trkpt lat="43.585328581209176" lon="2.5901366345836547"><ele>769.0</ele><time>2026-04-02T09:12:01Z</time></trkpt><trkpt lat="43.58545407268393" lon="2.5901581238159066"><ele>769.0</ele><time>2026-04-02T09:12:02Z</time></trkpt><trkpt lat="43.58557114901797" lon="2.590175876625984"><ele>768.75</ele><time>2026-04-02T09:12:03Z</time></trkpt><trkpt lat="43.585688827275376" lon="2.590235424056432"><ele>768.5</ele><time>2026-04-02T09:12:04Z</time></trkpt><trkpt lat="43.585805988591055" lon="2.590348881575322"><ele>768.25</ele><time>2026-04-02T09:12:05Z</time></trkpt><trkpt lat="43.58594392931412" lon="2.5904902963533614"><ele>768.0</ele><time>2026-04-02T09:12:06Z</time></trkpt><trkpt lat="43.58609487620785" lon="2.5906376846739136"><ele>763.75</ele><time>2026-04-02T09:12:07Z</time></trkpt><trkpt lat="43.586231463408964" lon="2.590822039505988"><ele>759.5</ele><time>2026-04-02T09:12:08Z</time></trkpt><trkpt lat="43.58628337663638" lon="2.590923366374225"><ele>755.25</ele><time>2026-04-02T09:12:09Z</time></trkpt><trkpt lat="43.586368596802174" lon="2.5911191857195415"><ele>751.0</ele><time>2026-04-02T09:12:10Z</time></trkpt><trkpt lat="43.58645715657614" lon="2.5913014254692244"><ele>751.0</ele><time>2026-04-02T09:12:11Z</time></trkpt><trkpt lat="43.58654809660102" lon="2.5914268560069975"><ele>751.0</ele><time>2026-04-02T09:12:12Z</time></trkpt><trkpt lat="43.586648923251296" lon="2.5915249230629955"><ele>751.0</ele><time>2026-04-02T09:12:13Z</time></trkpt><trkpt lat="43.586767280355915" lon="2.591543120008884"><ele>751.0</ele><time>2026-04-02T09:12:14Z</time></trkpt><trkpt lat="43.586884025431914" lon="2.5915008751636877"><ele>751.0</ele><time>2026-04-02T09:12:15Z</time></trkpt><trkpt lat="43.58697809535872" lon="2.5914102518076096"><ele>751.0</ele><time>2026-04-02T09:12:16Z</time></trkpt><trkpt lat="43.58703354934425" lon="2.5912653682578286"><ele>751.0</ele><time>2026-04-02T09:12:17Z</time></trkpt><trkpt lat="43.587080788568095" lon="2.5911124244310595"><ele>751.0</ele><time>2026-04-02T09:12:18Z</time></trkpt><trkpt lat="43.587149911150796" lon="2.5909363542883943"><ele>748.0</ele><time>2026-04-02T09:12:19Z</time></trkpt><trkpt lat="43.58722703367236" lon="2.59074883210752"><ele>745.0</ele><time>2026-04-02T09:12:20Z</time></trkpt><trkpt lat="43.58732150279536" lon="2.590572073115877"><ele>742.0</ele><time>2026-04-02T09:12:21Z</time></trkpt><trkpt lat="43.5874229070104" lon="2.5904336399228947"><ele>742.0</ele><time>2026-04-02T09:12:22Z</time></trkpt><trkpt lat="43.58755138966053" lon="2.590357139835982"><ele>742.0</ele><time>2026-04-02T09:12:23Z</time></trkpt><trkpt lat="43.58766839719838" lon="2.5902321178235654"><ele>742.0</ele><time>2026-04-02T09:12:24Z</time></trkpt><trkpt lat="43.587813065977635" lon="2.5902346159924496"><ele>742.0</ele><time>2026-04-02T09:12:25Z</time></trkpt><trkpt lat="43.58793178342839" lon="2.590375051976198"><ele>740.25</ele><time>2026-04-02T09:12:26Z</time></trkpt><trkpt lat="43.58802018129895" lon="2.5905192573284164"><ele>738.5</ele><time>2026-04-02T09:12:27Z</time></trkpt><trkpt lat="43.58806121170774" lon="2.5907047083138726"><ele>736.75</ele><time>2026-04-02T09:12:28Z</time></trkpt><trkpt lat="43.588071754571786" lon="2.590913033854959"><ele>735.0</ele><time>2026-04-02T09:12:29Z</time></trkpt><trkpt lat="43.58808516356236" lon="2.5911283755490224"><ele>735.75</ele><time>2026-04-02T09:12:30Z</time></trkpt><trkpt lat="43.58813470382092" lon="2.5913410719025443"><ele>736.5</ele><time>2026-04-02T09:12:31Z</time></trkpt><trkpt lat="43.58820997894457" lon="2.5915043643166173"><ele>737.25</ele><time>2026-04-02T09:12:32Z</time></trkpt><trkpt lat="43.588289997033314" lon="2.5916164441797096"><ele>738.0</ele><time>2026-04-02T09:12:33Z</time></trkpt><trkpt lat="43.588403531680555" lon="2.5916540750676718"><ele>738.0</ele><time>2026-04-02T09:12:34Z</time></trkpt><trkpt lat="43.5885204687624" lon="2.591607208619934"><ele>738.0</ele><time>2026-04-02T09:12:35Z</time></trkpt><trkpt lat="43.588600045041616" lon="2.591493683757274"><ele>738.0</ele><time>2026-04-02T09:12:36Z</time></trkpt><trkpt lat="43.58864335527633" lon="2.591338801750612"><ele>738.0</ele><time>2026-04-02T09:12:37Z</time></trkpt><trkpt lat="43.588690222411486" lon="2.591156664438117"><ele>737.0</ele><time>2026-04-02T09:12:38Z</time></trkpt><trkpt lat="43.58876768957981" lon="2.590997272875538"><ele>736.0</ele><time>2026-04-02T09:12:39Z</time></trkpt><trkpt lat="43.588900201793614" lon="2.5909389419644797"><ele>735.0</ele><time>2026-04-02T09:12:40Z</time></trkpt><trkpt lat="43.58904302614806" lon="2.5909048835866493"><ele>734.0</ele><time>2026-04-02T09:12:41Z</time></trkpt><trkpt lat="43.58920364675715" lon="2.5909135534152887"><ele>734.0</ele><time>2026-04-02T09:12:42Z</time></trkpt><trkpt lat="43.58935405493795" lon="2.590999385641038"><ele>734.0</ele><time>2026-04-02T09:12:43Z</time></trkpt><trkpt lat="43.589484830980155" lon="2.59115828619387"><ele>734.0</ele><time>2026-04-02T09:12:44Z</time></trkpt><trkpt lat="43.58962409585183" lon="2.5913434682711185"><ele>732.3333333333333</ele><time>2026-04-02T09:12:45Z</time></trkpt><trkpt lat="43.58974085514578" lon="2.5915617217642355"><ele>730.6666666666666</ele><time>2026-04-02T09:12:46Z</time></trkpt><trkpt lat="43.58984349669322" lon="2.5918148985165685"><ele>729.0</ele><time>2026-04-02T09:12:47Z</time></trkpt><trkpt lat="43.58991339518944" lon="2.592087083346605"><ele>729.0</ele><time>2026-04-02T09:12:48Z</time></trkpt><trkpt lat="43.58996377039506" lon="2.5923830444418483"><ele>729.0</ele><time>2026-04-02T09:12:49Z</time></trkpt><trkpt lat="43.590002057830574" lon="2.592687805480629"><ele>729.0</ele><time>2026-04-02T09:12:50Z</time></trkpt><trkpt lat="43.59003432066303" lon="2.592998327261375"><ele>731.0</ele><time>2026-04-02T09:12:51Z</time></trkpt><trkpt lat="43.590074062630556" lon="2.593314429631028"><ele>733.0</ele><time>2026-04-02T09:12:52Z</time></trkpt><trkpt lat="43.59009626649415" lon="2.593632938465622"><ele>732.3333333333334</ele><time>2026-04-02T09:12:53Z</time></trkpt><trkpt lat="43.59011620554021" lon="2.593927738406428"><ele>731.6666666666666</ele><time>2026-04-02T09:12:54Z</time></trkpt><trkpt lat="43.590126270657095" lon="2.594211166517599"><ele>731.0</ele><time>2026-04-02T09:12:55Z</time></trkpt><trkpt lat="43.59013091185704" lon="2.5945024674314174"><ele>728.5</ele><time>2026-04-02T09:12:56Z</time></trkpt><trkpt lat="43.59010450181756" lon="2.594801263394114"><ele>726.0</ele><time>2026-04-02T09:12:57Z</time></trkpt><trkpt lat="43.59008876418241" lon="2.5951234111902584"><ele>721.5</ele><time>2026-04-02T09:12:58Z</time></trkpt><trkpt lat="43.59008938438744" lon="2.595441836638197"><ele>717.0</ele><time>2026-04-02T09:12:59Z</time></trkpt><trkpt lat="43.590071051573034" lon="2.5957707076951153"><ele>717.0</ele><time>2026-04-02T09:13:00Z</time></trkpt><trkpt lat="43.59004928090332" lon="2.596096997373248"><ele>717.0</ele><time>2026-04-02T09:13:01Z</time></trkpt><trkpt lat="43.59002555665328" lon="2.5964205240968177"><ele>714.6666666666666</ele><time>2026-04-02T09:13:02Z</time></trkpt><trkpt lat="43.59000430836117" lon="2.596724546010536"><ele>712.3333333333333</ele><time>2026-04-02T09:13:03Z</time></trkpt><trkpt lat="43.58994396370405" lon="2.597014209096794"><ele>710.0</ele><time>2026-04-02T09:13:04Z</time></trkpt><trkpt lat="43.589914521881184" lon="2.5973178429201313"><ele>707.6666666666666</ele><time>2026-04-02T09:13:05Z</time></trkpt><trkpt lat="43.58987426222442" lon="2.597610459502336"><ele>705.3333333333334</ele><time>2026-04-02T09:13:06Z</time></trkpt><trkpt lat="43.589868333476936" lon="2.5979223427036597"><ele>703.0</ele><time>2026-04-02T09:13:07Z</time></trkpt><trkpt lat="43.58990776186799" lon="2.598237682173358"><ele>700.5</ele><time>2026-04-02T09:13:08Z</time></trkpt><trkpt lat="43.58999572658956" lon="2.5985327895738672"><ele>698.0</ele><time>2026-04-02T09:13:09Z</time></trkpt><trkpt lat="43.59011946396191" lon="2.5988088717779427"><ele>698.0</ele><time>2026-04-02T09:13:10Z</time></trkpt><trkpt lat="43.590242614780685" lon="2.5990834649075745"><ele>698.0</ele><time>2026-04-02T09:13:11Z</time></trkpt><trkpt lat="43.59034644095841" lon="2.5993524224873936"><ele>698.5</ele><time>2026-04-02T09:13:12Z</time></trkpt><trkpt lat="43.5904351839505" lon="2.5995876988143367"><ele>699.0</ele><time>2026-04-02T09:13:13Z</time></trkpt><trkpt lat="43.59049678029404" lon="2.599771170332875"><ele>699.5</ele><time>2026-04-02T09:13:14Z</time></trkpt><trkpt lat="43.59053236195202" lon="2.599893594364353"><ele>700.0</ele><time>2026-04-02T09:13:15Z</time></trkpt><trkpt lat="43.59057981877746" lon="2.5999566143484127"><ele>700.0</ele><time>2026-04-02T09:13:16Z</time></trkpt><trkpt lat="43.590656167689446" lon="2.599981060563494"><ele>700.0</ele><time>2026-04-02T09:13:17Z</time></trkpt><trkpt lat="43.59073773851439" lon="2.5999455790880392"><ele>700.0</ele><time>2026-04-02T09:13:18Z</time></trkpt><trkpt lat="43.59082438180844" lon="2.5998519125145116"><ele>700.0</ele><time>2026-04-02T09:13:19Z</time></trkpt><trkpt lat="43.590898624747986" lon="2.5997047968082185"><ele>700.0</ele><time>2026-04-02T09:13:20Z</time></trkpt><trkpt lat="43.59092149125629" lon="2.5995341923149224"><ele>698.0</ele><time>2026-04-02T09:13:21Z</time></trkpt><trkpt lat="43.59087743044493" lon="2.5993398330984325"><ele>696.0</ele><time>2026-04-02T09:13:22Z</time></trkpt><trkpt lat="43.590786786456036" lon="2.5991288258947987"><ele>694.0</ele><time>2026-04-02T09:13:23Z</time></trkpt><trkpt lat="43.59068649764262" lon="2.5989007368064567"><ele>693.0</ele><time>2026-04-02T09:13:24Z</time></trkpt><trkpt lat="43.59060388367186" lon="2.598659531876765"><ele>692.0</ele><time>2026-04-02T09:13:25Z</time></trkpt><trkpt lat="43.5905298445621" lon="2.598427779415001"><ele>691.0</ele><time>2026-04-02T09:13:26Z</time></trkpt><trkpt lat="43.590453702660504" lon="2.5982013134062014"><ele>691.0</ele><time>2026-04-02T09:13:27Z</time></trkpt><trkpt lat="43.59039410149932" lon="2.597967226230271"><ele>691.0</ele><time>2026-04-02T09:13:28Z</time></trkpt><trkpt lat="43.59038490543384" lon="2.5977184763755585"><ele>691.0</ele><time>2026-04-02T09:13:29Z</time></trkpt><trkpt lat="43.59040273985795" lon="2.5974840360946825"><ele>691.6666666666667</ele><time>2026-04-02T09:13:30Z</time></trkpt><trkpt lat="43.59045178224898" lon="2.5972477884582044"><ele>692.3333333333334</ele><time>2026-04-02T09:13:31Z</time></trkpt><trkpt lat="43.590524462490116" lon="2.597003782704276"><ele>693.0</ele><time>2026-04-02T09:13:32Z</time></trkpt><trkpt lat="43.59060528597839" lon="2.596740726390508"><ele>694.0</ele><time>2026-04-02T09:13:33Z</time></trkpt><trkpt lat="43.59071231973372" lon="2.5964708239025467"><ele>695.0</ele><time>2026-04-02T09:13:34Z</time></trkpt><trkpt lat="43.590804271921684" lon="2.596198760306853"><ele>696.0</ele><time>2026-04-02T09:13:35Z</time></trkpt><trkpt lat="43.59088566758086" lon="2.5959267034876286"><ele>697.0</ele><time>2026-04-02T09:13:36Z</time></trkpt><trkpt lat="43.59093934744615" lon="2.5956193995257024"><ele>698.0</ele><time>2026-04-02T09:13:37Z</time></trkpt><trkpt lat="43.59096635391999" lon="2.595271498008805"><ele>701.0</ele><time>2026-04-02T09:13:38Z</time></trkpt><trkpt lat="43.590987604389596" lon="2.5949104090644655"><ele>704.0</ele><time>2026-04-02T09:13:39Z</time></trkpt><trkpt lat="43.59102168553981" lon="2.5945591348841126"><ele>706.0</ele><time>2026-04-02T09:13:40Z</time></trkpt><trkpt lat="43.59106089230829" lon="2.5942013306572678"><ele>708.0</ele><time>2026-04-02T09:13:41Z</time></trkpt><trkpt lat="43.59109974984369" lon="2.593858750739239"><ele>707.3333333333334</ele><time>2026-04-02T09:13:42Z</time></trkpt><trkpt lat="43.59113479758751" lon="2.593544573441672"><ele>706.6666666666667</ele><time>2026-04-02T09:13:43Z</time></trkpt><trkpt lat="43.59116310171737" lon="2.5932592725160206"><ele>706.0</ele><time>2026-04-02T09:13:44Z</time></trkpt><trkpt lat="43.591187491434574" lon="2.593016717603793"><ele>701.0</ele><time>2026-04-02T09:13:45Z</time></trkpt><trkpt lat="43.59126956090611" lon="2.592826088982521"><ele>696.0</ele><time>2026-04-02T09:13:46Z</time></trkpt><trkpt lat="43.59139692524287" lon="2.592693744324894"><ele>691.0</ele><time>2026-04-02T09:13:47Z</time></trkpt><trkpt lat="43.591559350235634" lon="2.592617238044376"><ele>691.0</ele><time>2026-04-02T09:13:48Z</time></trkpt><trkpt lat="43.59176963331097" lon="2.5925834775753422"><ele>691.0</ele><time>2026-04-02T09:13:49Z</time></trkpt><trkpt lat="43.59200600543395" lon="2.5925299532728596"><ele>689.0</ele><time>2026-04-02T09:13:50Z</time></trkpt><trkpt lat="43.59226751192764" lon="2.5925046887849783"><ele>687.0</ele><time>2026-04-02T09:13:51Z</time></trkpt><trkpt lat="43.592522988506744" lon="2.592462037615397"><ele>687.0</ele><time>2026-04-02T09:13:52Z</time></trkpt><trkpt lat="43.592752648867915" lon="2.592437100237284"><ele>687.0</ele><time>2026-04-02T09:13:53Z</time></trkpt><trkpt lat="43.59295613798438" lon="2.5924273980940087"><ele>687.0</ele><time>2026-04-02T09:13:54Z</time></trkpt><trkpt lat="43.593146251926065" lon="2.592414794161527"><ele>686.6666666666666</ele><time>2026-04-02T09:13:55Z</time></trkpt><trkpt lat="43.593317240754956" lon="2.592420975139706"><ele>686.3333333333333</ele><time>2026-04-02T09:13:56Z</time></trkpt><trkpt lat="43.59344846316862" lon="2.592513531403596"><ele>686.0</ele><time>2026-04-02T09:13:57Z</time></trkpt><trkpt lat="43.593569788462574" lon="2.592633646167174"><ele>686.0</ele><time>2026-04-02T09:13:58Z</time></trkpt><trkpt lat="43.593640631316035" lon="2.592815711214721"><ele>686.0</ele><time>2026-04-02T09:13:59Z</time></trkpt><trkpt lat="43.59369623277477" lon="2.5930140282931786"><ele>686.0</ele><time>2026-04-02T09:14:00Z</time></trkpt><trkpt lat="43.59372534065768" lon="2.59324149000919"><ele>688.3333333333333</ele><time>2026-04-02T09:14:01Z</time></trkpt><trkpt lat="43.59369909666208" lon="2.5935175364720178"><ele>690.6666666666666</ele><time>2026-04-02T09:14:02Z</time></trkpt><trkpt lat="43.593662549605355" lon="2.593803472088274"><ele>693.0</ele><time>2026-04-02T09:14:03Z</time></trkpt><trkpt lat="43.59363681631992" lon="2.5940466175887016"><ele>687.5</ele><time>2026-04-02T09:14:04Z</time></trkpt><trkpt lat="43.59362042262276" lon="2.594249068390388"><ele>682.0</ele><time>2026-04-02T09:14:05Z</time></trkpt><trkpt lat="43.59360971108065" lon="2.5944175756336594"><ele>676.5</ele><time>2026-04-02T09:14:06Z</time></trkpt><trkpt lat="43.59360674108863" lon="2.5945524523738803"><ele>671.0</ele><time>2026-04-02T09:14:07Z</time></trkpt><trkpt lat="43.5936190405456" lon="2.5946688030999328"><ele>670.0</ele><time>2026-04-02T09:14:08Z</time></trkpt><trkpt lat="43.593668753696775" lon="2.5947727981499553"><ele>669.0</ele><time>2026-04-02T09:14:09Z</time></trkpt><trkpt lat="43.593761446498874" lon="2.594869665267973"><ele>668.0</ele><time>2026-04-02T09:14:10Z</time></trkpt><trkpt lat="43.59389779346749" lon="2.5949440331591527"><ele>667.0</ele><time>2026-04-02T09:14:11Z</time></trkpt><trkpt lat="43.59406236272413" lon="2.5949848342558703"><ele>670.0</ele><time>2026-04-02T09:14:12Z</time></trkpt><trkpt lat="43.59425175314083" lon="2.5950183977733987"><ele>673.0</ele><time>2026-04-02T09:14:13Z</time></trkpt><trkpt lat="43.59442224877683" lon="2.5950530833316927"><ele>676.0</ele><time>2026-04-02T09:14:14Z</time></trkpt><trkpt lat="43.5946259968428" lon="2.5950683425922185"><ele>677.0</ele><time>2026-04-02T09:14:15Z</time></trkpt><trkpt lat="43.59479918316701" lon="2.5950546529571348"><ele>678.0</ele><time>2026-04-02T09:14:16Z</time></trkpt><trkpt lat="43.59492717140511" lon="2.5950437549800176"><ele>679.0</ele><time>2026-04-02T09:14:17Z</time></trkpt><trkpt lat="43.59501038613686" lon="2.5951366616288367"><ele>680.0</ele><time>2026-04-02T09:14:18Z</time></trkpt><trkpt lat="43.595072712594686" lon="2.5952354924473315"><ele>676.0</ele><time>2026-04-02T09:14:19Z</time></trkpt><trkpt lat="43.59505732305284" lon="2.595401639439461"><ele>672.0</ele><time>2026-04-02T09:14:20Z</time></trkpt><trkpt lat="43.5950823261805" lon="2.595514067695145"><ele>668.0</ele><time>2026-04-02T09:14:21Z</time></trkpt><trkpt lat="43.59511031009636" lon="2.5956398992442775"><ele>664.0</ele><time>2026-04-02T09:14:22Z</time></trkpt><trkpt lat="43.59514213770734" lon="2.595779261119862"><ele>660.0</ele><time>2026-04-02T09:14:23Z</time></trkpt><trkpt lat="43.595178368979134" lon="2.595933000685076"><ele>660.0</ele><time>2026-04-02T09:14:24Z</time></trkpt><trkpt lat="43.595216738896845" lon="2.596093590507028"><ele>660.0</ele><time>2026-04-02T09:14:25Z</time></trkpt><trkpt lat="43.595256160397014" lon="2.5962569447144737"><ele>660.0</ele><time>2026-04-02T09:14:26Z</time></trkpt><trkpt lat="43.59529498723556" lon="2.596417834784496"><ele>660.0</ele><time>2026-04-02T09:14:27Z</time></trkpt><trkpt lat="43.59533125781695" lon="2.596570502622688"><ele>658.4</ele><time>2026-04-02T09:14:28Z</time></trkpt><trkpt lat="43.595366042702075" lon="2.596717479636167"><ele>656.8</ele><time>2026-04-02T09:14:29Z</time></trkpt><trkpt lat="43.595409446632225" lon="2.596855968954365"><ele>655.2</ele><time>2026-04-02T09:14:30Z</time></trkpt><trkpt lat="43.595442267084316" lon="2.5969799672761713"><ele>653.6</ele><time>2026-04-02T09:14:31Z</time></trkpt><trkpt lat="43.59546564515693" lon="2.597093614308431"><ele>652.0</ele><time>2026-04-02T09:14:32Z</time></trkpt><trkpt lat="43.595497127582455" lon="2.597193458094065"><ele>656.5</ele><time>2026-04-02T09:14:33Z</time></trkpt><trkpt lat="43.59550389346712" lon="2.597288549790732"><ele>661.0</ele><time>2026-04-02T09:14:34Z</time></trkpt><trkpt lat="43.59573370899891" lon="2.597252078287058"><ele>665.5</ele><time>2026-04-02T09:14:37Z</time></trkpt><trkpt lat="43.595811658824594" lon="2.5971901618002753"><ele>670.0</ele><time>2026-04-02T09:14:39Z</time></trkpt><trkpt lat="43.59586142798362" lon="2.597119922997702"><ele>669.9999999999999</ele><time>2026-04-02T09:14:41Z</time></trkpt><trkpt lat="43.59593856004315" lon="2.5970716668482217"><ele>670.0</ele><time>2026-04-02T09:14:44Z</time></trkpt><trkpt lat="43.59600583369893" lon="2.5970924512757643"><ele>670.0</ele><time>2026-04-02T09:14:46Z</time></trkpt><trkpt lat="43.596072820918565" lon="2.597033609830393"><ele>670.0</ele><time>2026-04-02T09:14:50Z</time></trkpt><trkpt lat="43.596008559932" lon="2.5970063487023154"><ele>670.0</ele><time>2026-04-02T09:14:53Z</time></trkpt><trkpt lat="43.59594401296693" lon="2.5970690490409494"><ele>669.9999999999999</ele><time>2026-04-02T09:14:55Z</time></trkpt><trkpt lat="43.59588812276204" lon="2.59711975551618"><ele>670.0</ele><time>2026-04-02T09:14:56Z</time></trkpt><trkpt lat="43.595810174024635" lon="2.597179540993975"><ele>670.0</ele><time>2026-04-02T09:14:57Z</time></trkpt><trkpt lat="43.595740508937595" lon="2.5972715880349546"><ele>670.0</ele><time>2026-04-02T09:14:58Z</time></trkpt><trkpt lat="43.595677717399994" lon="2.597373990084972"><ele>670.0</ele><time>2026-04-02T09:14:59Z</time></trkpt><trkpt lat="43.595635942368304" lon="2.597456863694686"><ele>670.0</ele><time>2026-04-02T09:15:00Z</time></trkpt><trkpt lat="43.595575569608776" lon="2.5976154218139156"><ele>670.0</ele><time>2026-04-02T09:15:02Z</time></trkpt><trkpt lat="43.59554536175692" lon="2.5977393073175303"><ele>672.3333333333334</ele><time>2026-04-02T09:15:03Z</time></trkpt><trkpt lat="43.59550984469892" lon="2.597929710824214"><ele>674.6666666666666</ele><time>2026-04-02T09:15:04Z</time></trkpt><trkpt lat="43.59548676124058" lon="2.5981508675023526"><ele>677.0</ele><time>2026-04-02T09:15:05Z</time></trkpt><trkpt lat="43.59547457223497" lon="2.598407128968074"><ele>677.6666666666666</ele><time>2026-04-02T09:15:06Z</time></trkpt><trkpt lat="43.5954559077018" lon="2.5986809673793787"><ele>678.3333333333334</ele><time>2026-04-02T09:15:07Z</time></trkpt><trkpt lat="43.59546559382465" lon="2.5989688515286313"><ele>679.0</ele><time>2026-04-02T09:15:08Z</time></trkpt><trkpt lat="43.59552203045515" lon="2.59927040850923"><ele>677.75</ele><time>2026-04-02T09:15:09Z</time></trkpt><trkpt lat="43.59558856292343" lon="2.599515394348509"><ele>676.5</ele><time>2026-04-02T09:15:10Z</time></trkpt><trkpt lat="43.59563294429282" lon="2.5996983103138454"><ele>675.25</ele><time>2026-04-02T09:15:11Z</time></trkpt><trkpt lat="43.59566802073203" lon="2.5998529162514656"><ele>674.0</ele><time>2026-04-02T09:15:12Z</time></trkpt><trkpt lat="43.59572644773107" lon="2.6000361509141245"><ele>674.0</ele><time>2026-04-02T09:15:13Z</time></trkpt><trkpt lat="43.59582622577953" lon="2.600204176463339"><ele>674.0</ele><time>2026-04-02T09:15:14Z</time></trkpt><trkpt lat="43.59595419116851" lon="2.600293973007243"><ele>674.0</ele><time>2026-04-02T09:15:15Z</time></trkpt><trkpt lat="43.596100694912415" lon="2.6003131432124786"><ele>674.0</ele><time>2026-04-02T09:15:16Z</time></trkpt><trkpt lat="43.596251243663744" lon="2.600259203148565"><ele>679.6666666666666</ele><time>2026-04-02T09:15:17Z</time></trkpt><trkpt lat="43.596390873236025" lon="2.600153615580663"><ele>685.3333333333334</ele><time>2026-04-02T09:15:18Z</time></trkpt><trkpt lat="43.59655976334261" lon="2.6000831859185194"><ele>691.0</ele><time>2026-04-02T09:15:19Z</time></trkpt><trkpt lat="43.596738516112914" lon="2.600113630739641"><ele>691.0</ele><time>2026-04-02T09:15:20Z</time></trkpt><trkpt lat="43.59691178763447" lon="2.600068678286934"><ele>691.0</ele><time>2026-04-02T09:15:21Z</time></trkpt><trkpt lat="43.597055645396175" lon="2.6000128037981507"><ele>691.0</ele><time>2026-04-02T09:15:22Z</time></trkpt><trkpt lat="43.59714373091028" lon="2.5998317205780106"><ele>693.0</ele><time>2026-04-02T09:15:23Z</time></trkpt><trkpt lat="43.59725114657543" lon="2.5996362509211655"><ele>695.0</ele><time>2026-04-02T09:15:24Z</time></trkpt><trkpt lat="43.59732465073388" lon="2.5993772644913697"><ele>697.0</ele><time>2026-04-02T09:15:25Z</time></trkpt><trkpt lat="43.5974225992684" lon="2.5991178608218632"><ele>697.0</ele><time>2026-04-02T09:15:26Z</time></trkpt><trkpt lat="43.59753285064828" lon="2.5988538320787793"><ele>697.0</ele><time>2026-04-02T09:15:27Z</time></trkpt><trkpt lat="43.597633660302215" lon="2.598594947854432"><ele>697.0</ele><time>2026-04-02T09:15:28Z</time></trkpt><trkpt lat="43.59772705657639" lon="2.5983363505221804"><ele>697.0</ele><time>2026-04-02T09:15:29Z</time></trkpt><trkpt lat="43.597829217859385" lon="2.5980896480622566"><ele>697.0</ele><time>2026-04-02T09:15:30Z</time></trkpt><trkpt lat="43.59792793094279" lon="2.597862371648427"><ele>697.0</ele><time>2026-04-02T09:15:31Z</time></trkpt><trkpt lat="43.59802651074068" lon="2.597669141375946"><ele>697.0</ele><time>2026-04-02T09:15:32Z</time></trkpt><trkpt lat="43.59815856440942" lon="2.5975674123277708"><ele>697.0</ele><time>2026-04-02T09:15:33Z</time></trkpt><trkpt lat="43.59828289546408" lon="2.5974857263926787"><ele>697.0</ele><time>2026-04-02T09:15:34Z</time></trkpt><trkpt lat="43.598407197171575" lon="2.5974150860768743"><ele>697.0</ele><time>2026-04-02T09:15:35Z</time></trkpt><trkpt lat="43.59856259364728" lon="2.5974168810762954"><ele>702.6666666666667</ele><time>2026-04-02T09:15:36Z</time></trkpt><trkpt lat="43.5987176530214" lon="2.597454439789795"><ele>708.3333333333334</ele><time>2026-04-02T09:15:37Z</time></trkpt><trkpt lat="43.598840273284516" lon="2.5975755553762343"><ele>714.0</ele><time>2026-04-02T09:15:38Z</time></trkpt><trkpt lat="43.59895956547419" lon="2.5977038169049402"><ele>709.3333333333334</ele><time>2026-04-02T09:15:39Z</time></trkpt><trkpt lat="43.59906967173698" lon="2.597846767598101"><ele>704.6666666666667</ele><time>2026-04-02T09:15:40Z</time></trkpt><trkpt lat="43.599171542045205" lon="2.598018836541713"><ele>700.0</ele><time>2026-04-02T09:15:41Z</time></trkpt><trkpt lat="43.59931683940983" lon="2.598150483370021"><ele>700.0</ele><time>2026-04-02T09:15:42Z</time></trkpt><trkpt lat="43.5994990188961" lon="2.598265764909698"><ele>700.0</ele><time>2026-04-02T09:15:43Z</time></trkpt><trkpt lat="43.59970539913813" lon="2.5983770699299935"><ele>700.0</ele><time>2026-04-02T09:15:44Z</time></trkpt><trkpt lat="43.59991150112918" lon="2.5985239181915345"><ele>700.6666666666667</ele><time>2026-04-02T09:15:45Z</time></trkpt><trkpt lat="43.60011627305989" lon="2.598624508601816"><ele>701.3333333333334</ele><time>2026-04-02T09:15:46Z</time></trkpt><trkpt lat="43.60029032097275" lon="2.598779430555768"><ele>702.0</ele><time>2026-04-02T09:15:47Z</time></trkpt><trkpt lat="43.60044590865252" lon="2.598960162846651"><ele>707.3333333333334</ele><time>2026-04-02T09:15:48Z</time></trkpt><trkpt lat="43.60060043008725" lon="2.59907593607265"><ele>712.6666666666667</ele><time>2026-04-02T09:15:49Z</time></trkpt><trkpt lat="43.600758205378526" lon="2.5991324568537757"><ele>718.0</ele><time>2026-04-02T09:15:50Z</time></trkpt><trkpt lat="43.60095572301646" lon="2.599103480030946"><ele>718.0</ele><time>2026-04-02T09:15:51Z</time></trkpt><trkpt lat="43.601158267430606" lon="2.5990572292412795"><ele>718.0</ele><time>2026-04-02T09:15:52Z</time></trkpt><trkpt lat="43.60136528883698" lon="2.5990321236877887"><ele>718.0</ele><time>2026-04-02T09:15:53Z</time></trkpt><trkpt lat="43.60156667425968" lon="2.599013230697523"><ele>721.0</ele><time>2026-04-02T09:15:54Z</time></trkpt><trkpt lat="43.60175389995892" lon="2.598995100240852"><ele>724.0</ele><time>2026-04-02T09:15:55Z</time></trkpt><trkpt lat="43.601940984556556" lon="2.5989780495174055"><ele>727.0</ele><time>2026-04-02T09:15:56Z</time></trkpt><trkpt lat="43.60213265689335" lon="2.5989819500223983"><ele>731.3333333333334</ele><time>2026-04-02T09:15:57Z</time></trkpt><trkpt lat="43.60228185052554" lon="2.5991120082406174"><ele>735.6666666666666</ele><time>2026-04-02T09:15:58Z</time></trkpt><trkpt lat="43.60243157788665" lon="2.599257235939417"><ele>740.0</ele><time>2026-04-02T09:15:59Z</time></trkpt><trkpt lat="43.60260824845674" lon="2.5993785632211197"><ele>740.0</ele><time>2026-04-02T09:16:00Z</time></trkpt><trkpt lat="43.60279839119738" lon="2.599483003429501"><ele>740.0</ele><time>2026-04-02T09:16:01Z</time></trkpt><trkpt lat="43.60302208982016" lon="2.599508828958364"><ele>740.0</ele><time>2026-04-02T09:16:02Z</time></trkpt><trkpt lat="43.60324485196003" lon="2.599511087583599"><ele>741.3333333333333</ele><time>2026-04-02T09:16:03Z</time></trkpt><trkpt lat="43.60344320997975" lon="2.599528750536132"><ele>742.6666666666666</ele><time>2026-04-02T09:16:04Z</time></trkpt><trkpt lat="43.60360854526778" lon="2.599632670127199"><ele>744.0</ele><time>2026-04-02T09:16:05Z</time></trkpt><trkpt lat="43.60374965647699" lon="2.5997616156362326"><ele>744.75</ele><time>2026-04-02T09:16:06Z</time></trkpt><trkpt lat="43.60389405802918" lon="2.5998126458448843"><ele>745.5</ele><time>2026-04-02T09:16:07Z</time></trkpt><trkpt lat="43.60403644004942" lon="2.5997986167309377"><ele>746.25</ele><time>2026-04-02T09:16:08Z</time></trkpt><trkpt lat="43.60416354343717" lon="2.5996992459033397"><ele>747.0</ele><time>2026-04-02T09:16:09Z</time></trkpt><trkpt lat="43.604264309850016" lon="2.5995098714936646"><ele>749.0</ele><time>2026-04-02T09:16:10Z</time></trkpt><trkpt lat="43.604386816583094" lon="2.5993133057852766"><ele>751.0</ele><time>2026-04-02T09:16:11Z</time></trkpt><trkpt lat="43.6045385100042" lon="2.599138836604587"><ele>753.0</ele><time>2026-04-02T09:16:12Z</time></trkpt><trkpt lat="43.60470265247675" lon="2.599012910158721"><ele>753.0</ele><time>2026-04-02T09:16:13Z</time></trkpt><trkpt lat="43.60485670999193" lon="2.5989825711470416"><ele>753.0</ele><time>2026-04-02T09:16:14Z</time></trkpt><trkpt lat="43.604988294692824" lon="2.5990357693034563"><ele>753.0</ele><time>2026-04-02T09:16:15Z</time></trkpt><trkpt lat="43.60515374015914" lon="2.5991190699991944"><ele>752.0</ele><time>2026-04-02T09:16:16Z</time></trkpt><trkpt lat="43.60533396305057" lon="2.5991579376257485"><ele>751.0</ele><time>2026-04-02T09:16:17Z</time></trkpt><trkpt lat="43.60554188731656" lon="2.599157555308861"><ele>750.0</ele><time>2026-04-02T09:16:18Z</time></trkpt><trkpt lat="43.60577417930393" lon="2.5991147700401083"><ele>750.0</ele><time>2026-04-02T09:16:19Z</time></trkpt><trkpt lat="43.60602257115214" lon="2.5990846898839086"><ele>750.0</ele><time>2026-04-02T09:16:20Z</time></trkpt><trkpt lat="43.606281096107274" lon="2.5990427034246615"><ele>752.5</ele><time>2026-04-02T09:16:21Z</time></trkpt><trkpt lat="43.60653137940486" lon="2.5990025678521436"><ele>755.0</ele><time>2026-04-02T09:16:22Z</time></trkpt><trkpt lat="43.60680031161403" lon="2.5989673886791342"><ele>754.0</ele><time>2026-04-02T09:16:23Z</time></trkpt><trkpt lat="43.60706964421271" lon="2.5989373942605476"><ele>753.0</ele><time>2026-04-02T09:16:24Z</time></trkpt><trkpt lat="43.60735136624303" lon="2.5989110170173477"><ele>753.0</ele><time>2026-04-02T09:16:25Z</time></trkpt><trkpt lat="43.60764081531679" lon="2.598953553286264"><ele>753.0</ele><time>2026-04-02T09:16:26Z</time></trkpt><trkpt lat="43.607933341126376" lon="2.5989727810139684"><ele>754.0</ele><time>2026-04-02T09:16:27Z</time></trkpt><trkpt lat="43.60824187563038" lon="2.5989769780323577"><ele>755.0</ele><time>2026-04-02T09:16:28Z</time></trkpt><trkpt lat="43.60853032408802" lon="2.5989818541012273"><ele>754.5</ele><time>2026-04-02T09:16:29Z</time></trkpt><trkpt lat="43.608772034038154" lon="2.59897737922259"><ele>754.0</ele><time>2026-04-02T09:16:30Z</time></trkpt><trkpt lat="43.608981535035376" lon="2.598986106599572"><ele>754.0</ele><time>2026-04-02T09:16:31Z</time></trkpt><trkpt lat="43.6091710975949" lon="2.5990012282235924"><ele>754.0</ele><time>2026-04-02T09:16:32Z</time></trkpt><trkpt lat="43.60933545935259" lon="2.5990564036273005"><ele>754.0</ele><time>2026-04-02T09:16:33Z</time></trkpt><trkpt lat="43.609506564857135" lon="2.5991448087694278"><ele>758.6666666666667</ele><time>2026-04-02T09:16:34Z</time></trkpt><trkpt lat="43.60971219360555" lon="2.599254938347431"><ele>763.3333333333334</ele><time>2026-04-02T09:16:35Z</time></trkpt><trkpt lat="43.60988686675776" lon="2.5993657672460633"><ele>768.0</ele><time>2026-04-02T09:16:36Z</time></trkpt><trkpt lat="43.6100421913711" lon="2.599484866424188"><ele>764.6666666666666</ele><time>2026-04-02T09:16:37Z</time></trkpt><trkpt lat="43.610204606640075" lon="2.5996174169908692"><ele>761.3333333333333</ele><time>2026-04-02T09:16:38Z</time></trkpt><trkpt lat="43.61035867871396" lon="2.5997735642990056"><ele>758.0</ele><time>2026-04-02T09:16:39Z</time></trkpt><trkpt lat="43.61055752110971" lon="2.599902347742851"><ele>758.0</ele><time>2026-04-02T09:16:40Z</time></trkpt><trkpt lat="43.61076210971264" lon="2.600052307451729"><ele>758.0</ele><time>2026-04-02T09:16:41Z</time></trkpt><trkpt lat="43.6109615719758" lon="2.6002515942774536"><ele>758.5</ele><time>2026-04-02T09:16:42Z</time></trkpt><trkpt lat="43.61115862739536" lon="2.60047692968004"><ele>759.0</ele><time>2026-04-02T09:16:43Z</time></trkpt><trkpt lat="43.6113588590714" lon="2.6006993867447132"><ele>759.0</ele><time>2026-04-02T09:16:44Z</time></trkpt><trkpt lat="43.61156119526731" lon="2.6008999179263115"><ele>759.0</ele><time>2026-04-02T09:16:45Z</time></trkpt><trkpt lat="43.61173773245693" lon="2.6011332614519986"><ele>760.0</ele><time>2026-04-02T09:16:46Z</time></trkpt><trkpt lat="43.611946976484234" lon="2.6013042445577677"><ele>761.0</ele><time>2026-04-02T09:16:47Z</time></trkpt><trkpt lat="43.61218420655237" lon="2.6014569460540744"><ele>761.0</ele><time>2026-04-02T09:16:48Z</time></trkpt><trkpt lat="43.61243530853681" lon="2.601625783096585"><ele>761.0</ele><time>2026-04-02T09:16:49Z</time></trkpt><trkpt lat="43.61269160552475" lon="2.6017863243436046"><ele>763.5</ele><time>2026-04-02T09:16:50Z</time></trkpt><trkpt lat="43.61295831716446" lon="2.601879720001624"><ele>766.0</ele><time>2026-04-02T09:16:51Z</time></trkpt><trkpt lat="43.61318695545525" lon="2.602019578671402"><ele>766.0</ele><time>2026-04-02T09:16:52Z</time></trkpt><trkpt lat="43.61339444955708" lon="2.602185209642123"><ele>766.0</ele><time>2026-04-02T09:16:53Z</time></trkpt><trkpt lat="43.61360180048258" lon="2.6023735177497342"><ele>769.0</ele><time>2026-04-02T09:16:54Z</time></trkpt><trkpt lat="43.613791149929234" lon="2.602556187372672"><ele>772.0</ele><time>2026-04-02T09:16:55Z</time></trkpt><trkpt lat="43.61398091208719" lon="2.602708556988413"><ele>769.5</ele><time>2026-04-02T09:16:56Z</time></trkpt><trkpt lat="43.61419118716563" lon="2.602840977071873"><ele>767.0</ele><time>2026-04-02T09:16:57Z</time></trkpt><trkpt lat="43.6144105922198" lon="2.6029516159876196"><ele>769.3333333333333</ele><time>2026-04-02T09:16:58Z</time></trkpt><trkpt lat="43.61461475372767" lon="2.603029513431561"><ele>771.6666666666666</ele><time>2026-04-02T09:16:59Z</time></trkpt><trkpt lat="43.61482097529077" lon="2.6030947856230644"><ele>774.0</ele><time>2026-04-02T09:17:00Z</time></trkpt><trkpt lat="43.61503662517062" lon="2.603130488814339"><ele>774.0</ele><time>2026-04-02T09:17:01Z</time></trkpt><trkpt lat="43.615267522488494" lon="2.603105637104329"><ele>774.0</ele><time>2026-04-02T09:17:02Z</time></trkpt><trkpt lat="43.6154887051337" lon="2.603087351758372"><ele>775.25</ele><time>2026-04-02T09:17:03Z</time></trkpt><trkpt lat="43.6156616990207" lon="2.603103434881"><ele>776.5</ele><time>2026-04-02T09:17:04Z</time></trkpt><trkpt lat="43.61579384573609" lon="2.6031569446604594"><ele>777.75</ele><time>2026-04-02T09:17:05Z</time></trkpt><trkpt lat="43.61590051596223" lon="2.60327612865062"><ele>779.0</ele><time>2026-04-02T09:17:06Z</time></trkpt><trkpt lat="43.61595458197035" lon="2.6034458193750494"><ele>779.0</ele><time>2026-04-02T09:17:07Z</time></trkpt><trkpt lat="43.61597870685314" lon="2.60365490840208"><ele>779.0</ele><time>2026-04-02T09:17:08Z</time></trkpt><trkpt lat="43.61604492640767" lon="2.6038817215745165"><ele>779.0</ele><time>2026-04-02T09:17:09Z</time></trkpt><trkpt lat="43.616173987132335" lon="2.604076643371302"><ele>783.3333333333334</ele><time>2026-04-02T09:17:10Z</time></trkpt><trkpt lat="43.616314117018796" lon="2.604269509300927"><ele>787.6666666666667</ele><time>2026-04-02T09:17:11Z</time></trkpt><trkpt lat="43.616449290667646" lon="2.604482619828741"><ele>792.0</ele><time>2026-04-02T09:17:12Z</time></trkpt><trkpt lat="43.61654922927652" lon="2.6047033926634593"><ele>792.3333333333333</ele><time>2026-04-02T09:17:13Z</time></trkpt><trkpt lat="43.61661572131649" lon="2.604929163679546"><ele>792.6666666666666</ele><time>2026-04-02T09:17:14Z</time></trkpt><trkpt lat="43.616710171748736" lon="2.6051355571175896"><ele>793.0</ele><time>2026-04-02T09:17:15Z</time></trkpt><trkpt lat="43.6168722865657" lon="2.605303081960032"><ele>795.6666666666666</ele><time>2026-04-02T09:17:16Z</time></trkpt><trkpt lat="43.6170445557492" lon="2.6054678363689123"><ele>798.3333333333333</ele><time>2026-04-02T09:17:17Z</time></trkpt><trkpt lat="43.61722432488995" lon="2.6056459499083604"><ele>801.0</ele><time>2026-04-02T09:17:18Z</time></trkpt><trkpt lat="43.61742085939023" lon="2.605785513652212"><ele>801.0</ele><time>2026-04-02T09:17:19Z</time></trkpt><trkpt lat="43.617579263075" lon="2.605864085984273"><ele>801.0</ele><time>2026-04-02T09:17:20Z</time></trkpt><trkpt lat="43.617709391323885" lon="2.6058888348381983"><ele>801.0</ele><time>2026-04-02T09:17:21Z</time></trkpt><trkpt lat="43.61785195642582" lon="2.6058266752981645"><ele>801.0</ele><time>2026-04-02T09:17:22Z</time></trkpt><trkpt lat="43.61799982726735" lon="2.6056712208921757"><ele>800.3333333333333</ele><time>2026-04-02T09:17:23Z</time></trkpt><trkpt lat="43.61815550709348" lon="2.6055228780833684"><ele>799.6666666666666</ele><time>2026-04-02T09:17:24Z</time></trkpt><trkpt lat="43.61833649653622" lon="2.6054771103497485"><ele>799.0</ele><time>2026-04-02T09:17:25Z</time></trkpt><trkpt lat="43.61852050790731" lon="2.605518848640038"><ele>801.3333333333333</ele><time>2026-04-02T09:17:26Z</time></trkpt><trkpt lat="43.61870998233147" lon="2.605631813103129"><ele>803.6666666666667</ele><time>2026-04-02T09:17:27Z</time></trkpt><trkpt lat="43.61887429556026" lon="2.605802529898368"><ele>806.0</ele><time>2026-04-02T09:17:28Z</time></trkpt><trkpt lat="43.61901381186242" lon="2.605959807884883"><ele>806.0</ele><time>2026-04-02T09:17:29Z</time></trkpt><trkpt lat="43.619202040702" lon="2.6060434055041335"><ele>806.0</ele><time>2026-04-02T09:17:30Z</time></trkpt><trkpt lat="43.61942215230837" lon="2.606070722628262"><ele>806.0</ele><time>2026-04-02T09:17:31Z</time></trkpt><trkpt lat="43.619615573215675" lon="2.606050268298691"><ele>806.6666666666667</ele><time>2026-04-02T09:17:32Z</time></trkpt><trkpt lat="43.61978549353992" lon="2.606087190131137"><ele>807.3333333333333</ele><time>2026-04-02T09:17:33Z</time></trkpt><trkpt lat="43.61994454197246" lon="2.6061980262989892"><ele>808.0</ele><time>2026-04-02T09:17:34Z</time></trkpt><trkpt lat="43.62011677119834" lon="2.606388447245834"><ele>801.0</ele><time>2026-04-02T09:17:35Z</time></trkpt><trkpt lat="43.62032337529589" lon="2.6065518580997935"><ele>794.0</ele><time>2026-04-02T09:17:36Z</time></trkpt><trkpt lat="43.620571865685854" lon="2.6066426128943863"><ele>794.0</ele><time>2026-04-02T09:17:37Z</time></trkpt><trkpt lat="43.62082978389563" lon="2.606739689792112"><ele>794.0</ele><time>2026-04-02T09:17:38Z</time></trkpt><trkpt lat="43.62106193052776" lon="2.606864208130557"><ele>796.6666666666667</ele><time>2026-04-02T09:17:39Z</time></trkpt><trkpt lat="43.62124881690497" lon="2.6069926323928776"><ele>799.3333333333333</ele><time>2026-04-02T09:17:40Z</time></trkpt><trkpt lat="43.62141212463756" lon="2.6071516599285167"><ele>802.0</ele><time>2026-04-02T09:17:41Z</time></trkpt><trkpt lat="43.621547203337975" lon="2.60734304337279"><ele>802.3333333333333</ele><time>2026-04-02T09:17:42Z</time></trkpt><trkpt lat="43.621663130555575" lon="2.6075085577870416"><ele>802.6666666666667</ele><time>2026-04-02T09:17:43Z</time></trkpt><trkpt lat="43.621819517660995" lon="2.6076052975842217"><ele>803.0</ele><time>2026-04-02T09:17:44Z</time></trkpt><trkpt lat="43.62201654638594" lon="2.6076622989402543"><ele>805.3333333333334</ele><time>2026-04-02T09:17:45Z</time></trkpt><trkpt lat="43.622229854368115" lon="2.607742193195913"><ele>807.6666666666667</ele><time>2026-04-02T09:17:46Z</time></trkpt><trkpt lat="43.62244504901193" lon="2.607817402423089"><ele>810.0</ele><time>2026-04-02T09:17:47Z</time></trkpt><trkpt lat="43.62263886661694" lon="2.607926125180115"><ele>817.0</ele><time>2026-04-02T09:17:48Z</time></trkpt><trkpt lat="43.62283104147941" lon="2.6081199901663044"><ele>824.0</ele><time>2026-04-02T09:17:49Z</time></trkpt><trkpt lat="43.62298053748548" lon="2.608337387705471"><ele>824.0</ele><time>2026-04-02T09:17:50Z</time></trkpt><trkpt lat="43.62308802618984" lon="2.608512578823959"><ele>824.0</ele><time>2026-04-02T09:17:51Z</time></trkpt><trkpt lat="43.623195400964825" lon="2.6086435987735723"><ele>824.0</ele><time>2026-04-02T09:17:52Z</time></trkpt><trkpt lat="43.623339720330094" lon="2.6087217415426673"><ele>823.0</ele><time>2026-04-02T09:17:53Z</time></trkpt><trkpt lat="43.62352294161189" lon="2.608721576802243"><ele>822.0</ele><time>2026-04-02T09:17:54Z</time></trkpt><trkpt lat="43.623701271784945" lon="2.6087326371346427"><ele>821.0</ele><time>2026-04-02T09:17:55Z</time></trkpt><trkpt lat="43.62384839506357" lon="2.6088585476437256"><ele>825.0</ele><time>2026-04-02T09:17:56Z</time></trkpt><trkpt lat="43.62397641524092" lon="2.609065277849912"><ele>829.0</ele><time>2026-04-02T09:17:57Z</time></trkpt><trkpt lat="43.62407497347788" lon="2.609303998243604"><ele>833.0</ele><time>2026-04-02T09:17:58Z</time></trkpt><trkpt lat="43.62419968546823" lon="2.609445054767233"><ele>832.5</ele><time>2026-04-02T09:17:59Z</time></trkpt><trkpt lat="43.62431679592255" lon="2.6095879080614206"><ele>832.0</ele><time>2026-04-02T09:18:00Z</time></trkpt><trkpt lat="43.624390483581905" lon="2.6097611719365696"><ele>831.5</ele><time>2026-04-02T09:18:01Z</time></trkpt><trkpt lat="43.624444259563575" lon="2.6099399875317397"><ele>831.0</ele><time>2026-04-02T09:18:02Z</time></trkpt><trkpt lat="43.62444641860909" lon="2.6101429991792893"><ele>830.6666666666667</ele><time>2026-04-02T09:18:03Z</time></trkpt><trkpt lat="43.62444017700796" lon="2.6104087136966427"><ele>830.3333333333334</ele><time>2026-04-02T09:18:04Z</time></trkpt><trkpt lat="43.62444777836305" lon="2.610713409945202"><ele>830.0</ele><time>2026-04-02T09:18:05Z</time></trkpt><trkpt lat="43.62442159744036" lon="2.6110356315013026"><ele>830.6666666666667</ele><time>2026-04-02T09:18:06Z</time></trkpt><trkpt lat="43.62440795697526" lon="2.6113183716420623"><ele>831.3333333333333</ele><time>2026-04-02T09:18:07Z</time></trkpt><trkpt lat="43.62439600445962" lon="2.6115576856012184"><ele>832.0</ele><time>2026-04-02T09:18:08Z</time></trkpt><trkpt lat="43.62440414565906" lon="2.611793494829296"><ele>833.6666666666666</ele><time>2026-04-02T09:18:09Z</time></trkpt><trkpt lat="43.62444503828263" lon="2.6120559226361717"><ele>835.3333333333333</ele><time>2026-04-02T09:18:10Z</time></trkpt><trkpt lat="43.6245133284945" lon="2.612345732915281"><ele>837.0</ele><time>2026-04-02T09:18:11Z</time></trkpt><trkpt lat="43.624584088655574" lon="2.612648562707545"><ele>838.6666666666667</ele><time>2026-04-02T09:18:12Z</time></trkpt><trkpt lat="43.62466200846129" lon="2.6129341949722553"><ele>840.3333333333334</ele><time>2026-04-02T09:18:13Z</time></trkpt><trkpt lat="43.62475501201958" lon="2.6131642960782577"><ele>842.0</ele><time>2026-04-02T09:18:14Z</time></trkpt><trkpt lat="43.62481701636175" lon="2.613374725427083"><ele>842.0</ele><time>2026-04-02T09:18:15Z</time></trkpt><trkpt lat="43.62487389014127" lon="2.6135739220513647"><ele>842.0</ele><time>2026-04-02T09:18:16Z</time></trkpt><trkpt lat="43.62489575165441" lon="2.613806571139646"><ele>842.0</ele><time>2026-04-02T09:18:17Z</time></trkpt><trkpt lat="43.62485601336565" lon="2.6140807744346275"><ele>841.6666666666667</ele><time>2026-04-02T09:18:18Z</time></trkpt><trkpt lat="43.624889458769765" lon="2.614381335771644"><ele>841.3333333333333</ele><time>2026-04-02T09:18:19Z</time></trkpt><trkpt lat="43.624915921305245" lon="2.614690989456379"><ele>841.0</ele><time>2026-04-02T09:18:20Z</time></trkpt><trkpt lat="43.62492546680594" lon="2.614960408445071"><ele>843.3333333333333</ele><time>2026-04-02T09:18:21Z</time></trkpt><trkpt lat="43.624943905738" lon="2.615194045467852"><ele>845.6666666666667</ele><time>2026-04-02T09:18:22Z</time></trkpt><trkpt lat="43.624964566984964" lon="2.615433849891122"><ele>848.0</ele><time>2026-04-02T09:18:23Z</time></trkpt><trkpt lat="43.62502012767458" lon="2.615683218347408"><ele>849.3333333333334</ele><time>2026-04-02T09:18:24Z</time></trkpt><trkpt lat="43.62508354617396" lon="2.61593722857242"><ele>850.6666666666667</ele><time>2026-04-02T09:18:25Z</time></trkpt><trkpt lat="43.62519355902316" lon="2.616167769927016"><ele>852.0</ele><time>2026-04-02T09:18:26Z</time></trkpt><trkpt lat="43.62530386818293" lon="2.6164150635043066"><ele>856.6666666666667</ele><time>2026-04-02T09:18:27Z</time></trkpt><trkpt lat="43.6254000072713" lon="2.6166345152710293"><ele>861.3333333333334</ele><time>2026-04-02T09:18:28Z</time></trkpt><trkpt lat="43.62550970676647" lon="2.6168299071483783"><ele>866.0</ele><time>2026-04-02T09:18:29Z</time></trkpt><trkpt lat="43.625678895366775" lon="2.6169857729655606"><ele>864.3333333333334</ele><time>2026-04-02T09:18:30Z</time></trkpt><trkpt lat="43.62585025692778" lon="2.6171307357334497"><ele>862.6666666666667</ele><time>2026-04-02T09:18:31Z</time></trkpt><trkpt lat="43.62601392322826" lon="2.61721993406629"><ele>861.0</ele><time>2026-04-02T09:18:32Z</time></trkpt><trkpt lat="43.626180240762366" lon="2.617301060808313"><ele>863.0</ele><time>2026-04-02T09:18:33Z</time></trkpt><trkpt lat="43.62631123257315" lon="2.617478254301384"><ele>865.0</ele><time>2026-04-02T09:18:34Z</time></trkpt><trkpt lat="43.62646188424451" lon="2.617701783542258"><ele>867.0</ele><time>2026-04-02T09:18:35Z</time></trkpt><trkpt lat="43.62659690118944" lon="2.6179627249805786"><ele>867.0</ele><time>2026-04-02T09:18:36Z</time></trkpt><trkpt lat="43.62672607115757" lon="2.6182489532867503"><ele>867.0</ele><time>2026-04-02T09:18:37Z</time></trkpt><trkpt lat="43.62685861830873" lon="2.618545856518078"><ele>878.0</ele><time>2026-04-02T09:18:38Z</time></trkpt><trkpt lat="43.62698992745921" lon="2.6188304799388393"><ele>889.0</ele><time>2026-04-02T09:18:39Z</time></trkpt><trkpt lat="43.627144163277094" lon="2.619105537951013"><ele>889.0</ele><time>2026-04-02T09:18:40Z</time></trkpt><trkpt lat="43.62729088360189" lon="2.6193680137616977"><ele>889.0</ele><time>2026-04-02T09:18:41Z</time></trkpt><trkpt lat="43.62742781257283" lon="2.619628333879737"><ele>887.5</ele><time>2026-04-02T09:18:42Z</time></trkpt><trkpt lat="43.627585780747054" lon="2.6198802469723463"><ele>886.0</ele><time>2026-04-02T09:18:43Z</time></trkpt><trkpt lat="43.62778042450717" lon="2.6200871968625417"><ele>893.5</ele><time>2026-04-02T09:18:44Z</time></trkpt><trkpt lat="43.627993184080545" lon="2.620298549739701"><ele>901.0</ele><time>2026-04-02T09:18:45Z</time></trkpt><trkpt lat="43.62819250032922" lon="2.620535003323478"><ele>901.0</ele><time>2026-04-02T09:18:46Z</time></trkpt><trkpt lat="43.628400489382145" lon="2.6207388753202023"><ele>901.0</ele><time>2026-04-02T09:18:47Z</time></trkpt><trkpt lat="43.628613352426164" lon="2.620902900361803"><ele>905.5</ele><time>2026-04-02T09:18:48Z</time></trkpt><trkpt lat="43.628823517934144" lon="2.62106467456118"><ele>910.0</ele><time>2026-04-02T09:18:49Z</time></trkpt><trkpt lat="43.62903445796141" lon="2.621196420569798"><ele>910.0</ele><time>2026-04-02T09:18:50Z</time></trkpt><trkpt lat="43.629259197338605" lon="2.6212866345577757"><ele>910.0</ele><time>2026-04-02T09:18:51Z</time></trkpt><trkpt lat="43.629501784883495" lon="2.621321484163002"><ele>914.0</ele><time>2026-04-02T09:18:52Z</time></trkpt><trkpt lat="43.62973288045588" lon="2.6213952548855035"><ele>918.0</ele><time>2026-04-02T09:18:53Z</time></trkpt><trkpt lat="43.629956833219154" lon="2.621543403610974"><ele>918.0</ele><time>2026-04-02T09:18:54Z</time></trkpt><trkpt lat="43.63016226829772" lon="2.6216910513905742"><ele>918.0</ele><time>2026-04-02T09:18:55Z</time></trkpt><trkpt lat="43.630350005197826" lon="2.621800400425435"><ele>918.0</ele><time>2026-04-02T09:18:56Z</time></trkpt><trkpt lat="43.63050169660118" lon="2.6219265541394687"><ele>920.3333333333333</ele><time>2026-04-02T09:18:57Z</time></trkpt><trkpt lat="43.6306278727459" lon="2.6220570092127273"><ele>922.6666666666666</ele><time>2026-04-02T09:18:58Z</time></trkpt><trkpt lat="43.63075975529358" lon="2.622220989531055"><ele>925.0</ele><time>2026-04-02T09:18:59Z</time></trkpt><trkpt lat="43.63091836649665" lon="2.622383818661511"><ele>925.0</ele><time>2026-04-02T09:19:00Z</time></trkpt><trkpt lat="43.63101333895287" lon="2.622708659749314"><ele>925.0</ele><time>2026-04-02T09:19:01Z</time></trkpt><trkpt lat="43.631205175571786" lon="2.622878374026527"><ele>924.0</ele><time>2026-04-02T09:19:02Z</time></trkpt><trkpt lat="43.631398041864344" lon="2.6230465245051477"><ele>923.0</ele><time>2026-04-02T09:19:03Z</time></trkpt><trkpt lat="43.63158243980911" lon="2.6232375232263716"><ele>923.0</ele><time>2026-04-02T09:19:04Z</time></trkpt><trkpt lat="43.63176941660265" lon="2.6234369198164105"><ele>923.0</ele><time>2026-04-02T09:19:05Z</time></trkpt><trkpt lat="43.6319611662501" lon="2.623634320171139"><ele>924.5</ele><time>2026-04-02T09:19:06Z</time></trkpt><trkpt lat="43.632120009982124" lon="2.623862726303074"><ele>926.0</ele><time>2026-04-02T09:19:07Z</time></trkpt><trkpt lat="43.63226181269632" lon="2.624136565708494"><ele>926.0</ele><time>2026-04-02T09:19:08Z</time></trkpt><trkpt lat="43.632401442584616" lon="2.6244371825217896"><ele>926.0</ele><time>2026-04-02T09:19:09Z</time></trkpt><trkpt lat="43.632540717359454" lon="2.6247085519622124"><ele>927.0</ele><time>2026-04-02T09:19:10Z</time></trkpt><trkpt lat="43.632692671460646" lon="2.624920936723631"><ele>928.0</ele><time>2026-04-02T09:19:11Z</time></trkpt><trkpt lat="43.63284512397609" lon="2.625115325615892"><ele>929.0</ele><time>2026-04-02T09:19:12Z</time></trkpt><trkpt lat="43.63295580533218" lon="2.6253638279913556"><ele>931.6666666666667</ele><time>2026-04-02T09:19:13Z</time></trkpt><trkpt lat="43.633023125610414" lon="2.6256690449924944"><ele>934.3333333333333</ele><time>2026-04-02T09:19:14Z</time></trkpt><trkpt lat="43.63310130592934" lon="2.6259420308265327"><ele>937.0</ele><time>2026-04-02T09:19:15Z</time></trkpt><trkpt lat="43.63317540130197" lon="2.6261302518561958"><ele>939.75</ele><time>2026-04-02T09:19:16Z</time></trkpt><trkpt lat="43.63323820854332" lon="2.6262815269554265"><ele>942.5</ele><time>2026-04-02T09:19:17Z</time></trkpt><trkpt lat="43.63332219789461" lon="2.6263750419107845"><ele>945.25</ele><time>2026-04-02T09:19:18Z</time></trkpt><trkpt lat="43.63344811036777" lon="2.626402429332219"><ele>948.0</ele><time>2026-04-02T09:19:19Z</time></trkpt><trkpt lat="43.63360262214443" lon="2.6263353929763786"><ele>948.6666666666667</ele><time>2026-04-02T09:19:20Z</time></trkpt><trkpt lat="43.63376342029592" lon="2.62620473604692"><ele>949.3333333333334</ele><time>2026-04-02T09:19:21Z</time></trkpt><trkpt lat="43.633923583265215" lon="2.6261626094960477"><ele>950.0</ele><time>2026-04-02T09:19:22Z</time></trkpt><trkpt lat="43.63409566898677" lon="2.6262302264160824"><ele>950.0</ele><time>2026-04-02T09:19:23Z</time></trkpt><trkpt lat="43.634277475181904" lon="2.6263756647593692"><ele>950.0</ele><time>2026-04-02T09:19:24Z</time></trkpt><trkpt lat="43.6344591875864" lon="2.6265693222450195"><ele>950.0</ele><time>2026-04-02T09:19:25Z</time></trkpt><trkpt lat="43.634640358330934" lon="2.626792189048667"><ele>953.6666666666667</ele><time>2026-04-02T09:19:26Z</time></trkpt><trkpt lat="43.63480096459585" lon="2.6269863470897015"><ele>957.3333333333333</ele><time>2026-04-02T09:19:27Z</time></trkpt><trkpt lat="43.634958824449264" lon="2.627163958516413"><ele>961.0</ele><time>2026-04-02T09:19:28Z</time></trkpt><trkpt lat="43.63510516657609" lon="2.6273849940348937"><ele>961.0</ele><time>2026-04-02T09:19:29Z</time></trkpt><trkpt lat="43.63521012881119" lon="2.6276211978607207"><ele>961.0</ele><time>2026-04-02T09:19:30Z</time></trkpt><trkpt lat="43.635299528540536" lon="2.6278126051500004"><ele>961.0</ele><time>2026-04-02T09:19:31Z</time></trkpt><trkpt lat="43.63542900210263" lon="2.627932766971642"><ele>960.3333333333333</ele><time>2026-04-02T09:19:32Z</time></trkpt><trkpt lat="43.635581102438785" lon="2.6279590880700865"><ele>959.6666666666667</ele><time>2026-04-02T09:19:33Z</time></trkpt><trkpt lat="43.63572216134988" lon="2.62788812463322"><ele>959.0</ele><time>2026-04-02T09:19:34Z</time></trkpt><trkpt lat="43.635855606522526" lon="2.6277962620609565"><ele>959.0</ele><time>2026-04-02T09:19:35Z</time></trkpt><trkpt lat="43.63600021302465" lon="2.6278101713109248"><ele>959.0</ele><time>2026-04-02T09:19:36Z</time></trkpt><trkpt lat="43.63613370874028" lon="2.6279427423630337"><ele>959.0</ele><time>2026-04-02T09:19:37Z</time></trkpt><trkpt lat="43.63625529398986" lon="2.6281380816371858"><ele>963.6666666666667</ele><time>2026-04-02T09:19:38Z</time></trkpt><trkpt lat="43.6363820697171" lon="2.628357880901966"><ele>968.3333333333333</ele><time>2026-04-02T09:19:39Z</time></trkpt><trkpt lat="43.63652923092602" lon="2.6285751006056457"><ele>973.0</ele><time>2026-04-02T09:19:40Z</time></trkpt><trkpt lat="43.63667204874465" lon="2.628766691832413"><ele>977.6666666666666</ele><time>2026-04-02T09:19:41Z</time></trkpt><trkpt lat="43.63681589938274" lon="2.628951290113998"><ele>982.3333333333333</ele><time>2026-04-02T09:19:42Z</time></trkpt><trkpt lat="43.636977686555" lon="2.6291179151994797"><ele>987.0</ele><time>2026-04-02T09:19:43Z</time></trkpt><trkpt lat="43.6371657126202" lon="2.629262932311905"><ele>989.0</ele><time>2026-04-02T09:19:44Z</time></trkpt><trkpt lat="43.63738769835283" lon="2.629372158994501"><ele>991.0</ele><time>2026-04-02T09:19:45Z</time></trkpt><trkpt lat="43.63762023406878" lon="2.6294545758003554"><ele>997.0</ele><time>2026-04-02T09:19:46Z</time></trkpt><trkpt lat="43.63782201538524" lon="2.62947631375269"><ele>1003.0</ele><time>2026-04-02T09:19:47Z</time></trkpt><trkpt lat="43.63799684605435" lon="2.629511378025578"><ele>1009.0</ele><time>2026-04-02T09:19:48Z</time></trkpt><trkpt lat="43.63814504900859" lon="2.629574526702806"><ele>1009.0</ele><time>2026-04-02T09:19:49Z</time></trkpt><trkpt lat="43.63828137935555" lon="2.629665392215507"><ele>1009.0</ele><time>2026-04-02T09:19:50Z</time></trkpt><trkpt lat="43.63843339725453" lon="2.6297750528300488"><ele>1009.0</ele><time>2026-04-02T09:19:51Z</time></trkpt><trkpt lat="43.63858317660075" lon="2.629894795409141"><ele>1009.3333333333333</ele><time>2026-04-02T09:19:52Z</time></trkpt><trkpt lat="43.63872368393258" lon="2.630022198914108"><ele>1009.6666666666667</ele><time>2026-04-02T09:19:53Z</time></trkpt><trkpt lat="43.6388561716813" lon="2.630176105143191"><ele>1010.0</ele><time>2026-04-02T09:19:54Z</time></trkpt><trkpt lat="43.638980470009514" lon="2.6303725231101147"><ele>1010.0</ele><time>2026-04-02T09:19:55Z</time></trkpt><trkpt lat="43.639089816055005" lon="2.630583233003211"><ele>1010.0</ele><time>2026-04-02T09:19:56Z</time></trkpt><trkpt lat="43.63923072099923" lon="2.6307733811324443"><ele>1010.0</ele><time>2026-04-02T09:19:57Z</time></trkpt><trkpt lat="43.63942253434063" lon="2.6309249819933602"><ele>1008.5</ele><time>2026-04-02T09:19:58Z</time></trkpt><trkpt lat="43.639631549115045" lon="2.6310614105138996"><ele>1007.0</ele><time>2026-04-02T09:19:59Z</time></trkpt><trkpt lat="43.639833882556246" lon="2.6311844358915795"><ele>1009.6666666666667</ele><time>2026-04-02T09:20:00Z</time></trkpt><trkpt lat="43.64004882952503" lon="2.631261889093153"><ele>1012.3333333333333</ele><time>2026-04-02T09:20:01Z</time></trkpt><trkpt lat="43.64026882893495" lon="2.631292481084702"><ele>1015.0</ele><time>2026-04-02T09:20:02Z</time></trkpt><trkpt lat="43.64047661664811" lon="2.6313669901423866"><ele>1015.0</ele><time>2026-04-02T09:20:03Z</time></trkpt><trkpt lat="43.64068825832004" lon="2.6314885872492395"><ele>1015.0</ele><time>2026-04-02T09:20:04Z</time></trkpt><trkpt lat="43.640859268930804" lon="2.631639780259183"><ele>1015.0</ele><time>2026-04-02T09:20:05Z</time></trkpt><trkpt lat="43.64104008048351" lon="2.6317221149902026"><ele>1015.6666666666666</ele><time>2026-04-02T09:20:06Z</time></trkpt><trkpt lat="43.64122043388731" lon="2.631801492362314"><ele>1016.3333333333333</ele><time>2026-04-02T09:20:07Z</time></trkpt><trkpt lat="43.64143918859523" lon="2.631821805688702"><ele>1017.0</ele><time>2026-04-02T09:20:08Z</time></trkpt><trkpt lat="43.64169274529065" lon="2.631825617961448"><ele>1017.0</ele><time>2026-04-02T09:20:09Z</time></trkpt><trkpt lat="43.6419570221687" lon="2.631843318998136"><ele>1017.0</ele><time>2026-04-02T09:20:10Z</time></trkpt><trkpt lat="43.642206272998465" lon="2.6318591744110282"><ele>1017.5</ele><time>2026-04-02T09:20:11Z</time></trkpt><trkpt lat="43.6424560716961" lon="2.6318649991324703"><ele>1018.0</ele><time>2026-04-02T09:20:12Z</time></trkpt><trkpt lat="43.642701903396336" lon="2.6318694916834953"><ele>1017.3333333333333</ele><time>2026-04-02T09:20:13Z</time></trkpt><trkpt lat="43.64292529541415" lon="2.631874504405872"><ele>1016.6666666666667</ele><time>2026-04-02T09:20:14Z</time></trkpt><trkpt lat="43.64312990384152" lon="2.631860268875455"><ele>1016.0</ele><time>2026-04-02T09:20:15Z</time></trkpt><trkpt lat="43.64330989123684" lon="2.631881229797978"><ele>1016.0</ele><time>2026-04-02T09:20:16Z</time></trkpt><trkpt lat="43.64347902142828" lon="2.631966877861498"><ele>1016.0</ele><time>2026-04-02T09:20:17Z</time></trkpt><trkpt lat="43.64367607318728" lon="2.6321055671565197"><ele>1016.0</ele><time>2026-04-02T09:20:18Z</time></trkpt><trkpt lat="43.64390445762531" lon="2.6322471920706283"><ele>1014.0</ele><time>2026-04-02T09:20:19Z</time></trkpt><trkpt lat="43.644125441626" lon="2.6324578574501483"><ele>1012.0</ele><time>2026-04-02T09:20:20Z</time></trkpt><trkpt lat="43.644346621273876" lon="2.63269421990637"><ele>1013.0</ele><time>2026-04-02T09:20:21Z</time></trkpt><trkpt lat="43.64458123564684" lon="2.6329467434085823"><ele>1014.0</ele><time>2026-04-02T09:20:22Z</time></trkpt><trkpt lat="43.644847994618544" lon="2.6331766460787303"><ele>1014.0</ele><time>2026-04-02T09:20:23Z</time></trkpt><trkpt lat="43.64511049398047" lon="2.633391187714639"><ele>1014.0</ele><time>2026-04-02T09:20:24Z</time></trkpt><trkpt lat="43.64537299133306" lon="2.6335779485186985"><ele>1016.5</ele><time>2026-04-02T09:20:25Z</time></trkpt><trkpt lat="43.64561829624868" lon="2.6337918782029206"><ele>1019.0</ele><time>2026-04-02T09:20:26Z</time></trkpt><trkpt lat="43.6458643488424" lon="2.6340008800625863"><ele>1019.0</ele><time>2026-04-02T09:20:27Z</time></trkpt><trkpt lat="43.64609692910935" lon="2.634229352459494"><ele>1019.0</ele><time>2026-04-02T09:20:28Z</time></trkpt><trkpt lat="43.64632365589867" lon="2.6344582185853103"><ele>1022.0</ele><time>2026-04-02T09:20:29Z</time></trkpt><trkpt lat="43.64653986489671" lon="2.634676845755975"><ele>1025.0</ele><time>2026-04-02T09:20:30Z</time></trkpt><trkpt lat="43.64675604925925" lon="2.6348747956773324"><ele>1025.0</ele><time>2026-04-02T09:20:31Z</time></trkpt><trkpt lat="43.64695223543788" lon="2.635070389961114"><ele>1025.0</ele><time>2026-04-02T09:20:32Z</time></trkpt><trkpt lat="43.64714572464493" lon="2.635249581262471"><ele>1024.0</ele><time>2026-04-02T09:20:33Z</time></trkpt><trkpt lat="43.647365096294756" lon="2.6354073737875665"><ele>1023.0</ele><time>2026-04-02T09:20:34Z</time></trkpt><trkpt lat="43.64761183651686" lon="2.6355226370053515"><ele>1025.0</ele><time>2026-04-02T09:20:35Z</time></trkpt><trkpt lat="43.647818259653555" lon="2.635603815757268"><ele>1027.0</ele><time>2026-04-02T09:20:36Z</time></trkpt><trkpt lat="43.64797918596135" lon="2.6356632342712656"><ele>1029.0</ele><time>2026-04-02T09:20:37Z</time></trkpt><trkpt lat="43.648164019841644" lon="2.635670488597109"><ele>1029.0</ele><time>2026-04-02T09:20:38Z</time></trkpt><trkpt lat="43.64836909989669" lon="2.6356299399955567"><ele>1029.0</ele><time>2026-04-02T09:20:39Z</time></trkpt><trkpt lat="43.6485579325885" lon="2.6356957602599804"><ele>1029.0</ele><time>2026-04-02T09:20:40Z</time></trkpt><trkpt lat="43.64874369579475" lon="2.635820569478482"><ele>1026.0</ele><time>2026-04-02T09:20:41Z</time></trkpt><trkpt lat="43.6489530852144" lon="2.6359292407412886"><ele>1023.0</ele><time>2026-04-02T09:20:42Z</time></trkpt><trkpt lat="43.64915620543816" lon="2.6360464855024675"><ele>1020.0</ele><time>2026-04-02T09:20:43Z</time></trkpt><trkpt lat="43.649338868732784" lon="2.636137030548291"><ele>1027.6666666666667</ele><time>2026-04-02T09:20:44Z</time></trkpt><trkpt lat="43.64948449008675" lon="2.6362176769298085"><ele>1035.3333333333335</ele><time>2026-04-02T09:20:45Z</time></trkpt><trkpt lat="43.64955081056987" lon="2.6363858490939753"><ele>1043.0</ele><time>2026-04-02T09:20:46Z</time></trkpt><trkpt lat="43.64959500180409" lon="2.636598985509175"><ele>1043.0</ele><time>2026-04-02T09:20:47Z</time></trkpt><trkpt lat="43.64964359036105" lon="2.6368731744188705"><ele>1043.0</ele><time>2026-04-02T09:20:48Z</time></trkpt><trkpt lat="43.6496866728576" lon="2.6371748813706"><ele>1043.0</ele><time>2026-04-02T09:20:49Z</time></trkpt><trkpt lat="43.649713428506686" lon="2.637481082975185"><ele>1039.0</ele><time>2026-04-02T09:20:50Z</time></trkpt><trkpt lat="43.649734586012926" lon="2.6377915726128975"><ele>1035.0</ele><time>2026-04-02T09:20:51Z</time></trkpt><trkpt lat="43.64975749914244" lon="2.638104059003252"><ele>1033.0</ele><time>2026-04-02T09:20:52Z</time></trkpt><trkpt lat="43.64979594595564" lon="2.6383890813710846"><ele>1031.0</ele><time>2026-04-02T09:20:53Z</time></trkpt><trkpt lat="43.64982303325904" lon="2.6386339771522036"><ele>1029.0</ele><time>2026-04-02T09:20:54Z</time></trkpt><trkpt lat="43.649862651703366" lon="2.6388519370559718"><ele>1025.3333333333333</ele><time>2026-04-02T09:20:55Z</time></trkpt><trkpt lat="43.64996349444637" lon="2.6390336071047162"><ele>1021.6666666666666</ele><time>2026-04-02T09:20:56Z</time></trkpt><trkpt lat="43.65011548992632" lon="2.639206162097257"><ele>1018.0</ele><time>2026-04-02T09:20:57Z</time></trkpt><trkpt lat="43.650283224537816" lon="2.639398740843342"><ele>1021.0</ele><time>2026-04-02T09:20:58Z</time></trkpt><trkpt lat="43.650429580563056" lon="2.639621566052723"><ele>1024.0</ele><time>2026-04-02T09:20:59Z</time></trkpt><trkpt lat="43.65058812196688" lon="2.639805475840877"><ele>1027.0</ele><time>2026-04-02T09:21:00Z</time></trkpt><trkpt lat="43.65068190708885" lon="2.6400337638772964"><ele>1027.0</ele><time>2026-04-02T09:21:01Z</time></trkpt><trkpt lat="43.65074154776236" lon="2.6402827646598936"><ele>1027.0</ele><time>2026-04-02T09:21:02Z</time></trkpt><trkpt lat="43.65083549663381" lon="2.6405161548552054"><ele>1027.0</ele><time>2026-04-02T09:21:03Z</time></trkpt><trkpt lat="43.65092967388572" lon="2.6407267498988025"><ele>1028.6666666666665</ele><time>2026-04-02T09:21:04Z</time></trkpt><trkpt lat="43.65107058814754" lon="2.640875334974357"><ele>1030.3333333333333</ele><time>2026-04-02T09:21:05Z</time></trkpt><trkpt lat="43.65124949677381" lon="2.6409751398150623"><ele>1032.0</ele><time>2026-04-02T09:21:06Z</time></trkpt><trkpt lat="43.65145232136138" lon="2.6410365349839386"><ele>1024.3333333333333</ele><time>2026-04-02T09:21:07Z</time></trkpt><trkpt lat="43.65164319880008" lon="2.6411446713125337"><ele>1016.6666666666666</ele><time>2026-04-02T09:21:08Z</time></trkpt><trkpt lat="43.651793514317355" lon="2.641285975729078"><ele>1009.0</ele><time>2026-04-02T09:21:09Z</time></trkpt><trkpt lat="43.65192556545385" lon="2.6415052011719253"><ele>1013.0</ele><time>2026-04-02T09:21:10Z</time></trkpt><trkpt lat="43.652071230685614" lon="2.6417435410363206"><ele>1017.0</ele><time>2026-04-02T09:21:11Z</time></trkpt><trkpt lat="43.65221718539644" lon="2.641991764989338"><ele>1017.0</ele><time>2026-04-02T09:21:12Z</time></trkpt><trkpt lat="43.65234934672817" lon="2.642220137165248"><ele>1017.0</ele><time>2026-04-02T09:21:13Z</time></trkpt><trkpt lat="43.652474205121166" lon="2.642424510357167"><ele>1017.0</ele><time>2026-04-02T09:21:14Z</time></trkpt><trkpt lat="43.65258431667211" lon="2.642624455991143"><ele>1017.0</ele><time>2026-04-02T09:21:15Z</time></trkpt><trkpt lat="43.65268333219793" lon="2.6427857030087094"><ele>1017.0</ele><time>2026-04-02T09:21:16Z</time></trkpt><trkpt lat="43.65280018385287" lon="2.6428825663925077"><ele>1017.0</ele><time>2026-04-02T09:21:17Z</time></trkpt><trkpt lat="43.6529229293211" lon="2.642918732036947"><ele>1017.0</ele><time>2026-04-02T09:21:18Z</time></trkpt><trkpt lat="43.65308160555401" lon="2.642878457889889"><ele>1018.6666666666667</ele><time>2026-04-02T09:21:19Z</time></trkpt><trkpt lat="43.65326268543224" lon="2.642790724211487"><ele>1020.3333333333334</ele><time>2026-04-02T09:21:20Z</time></trkpt><trkpt lat="43.653457181726196" lon="2.6427220290547737"><ele>1022.0</ele><time>2026-04-02T09:21:21Z</time></trkpt><trkpt lat="43.65367043781571" lon="2.6427366487146116"><ele>1012.0</ele><time>2026-04-02T09:21:22Z</time></trkpt><trkpt lat="43.653884991738536" lon="2.642814637129048"><ele>1002.0</ele><time>2026-04-02T09:21:23Z</time></trkpt><trkpt lat="43.65411171203032" lon="2.642858603164239"><ele>1002.0</ele><time>2026-04-02T09:21:24Z</time></trkpt><trkpt lat="43.654346097057655" lon="2.6428593554019324"><ele>1002.0</ele><time>2026-04-02T09:21:25Z</time></trkpt><trkpt lat="43.65458605476728" lon="2.6428507408167894"><ele>999.6666666666667</ele><time>2026-04-02T09:21:26Z</time></trkpt><trkpt lat="43.65481476812505" lon="2.6428548695269485"><ele>997.3333333333334</ele><time>2026-04-02T09:21:27Z</time></trkpt><trkpt lat="43.65502390838123" lon="2.642875299710962"><ele>995.0</ele><time>2026-04-02T09:21:28Z</time></trkpt><trkpt lat="43.65521668884011" lon="2.642882274709625"><ele>990.6666666666667</ele><time>2026-04-02T09:21:29Z</time></trkpt><trkpt lat="43.655418504141075" lon="2.642858391599174"><ele>986.3333333333333</ele><time>2026-04-02T09:21:30Z</time></trkpt><trkpt lat="43.655631871988994" lon="2.642782416797857"><ele>982.0</ele><time>2026-04-02T09:21:31Z</time></trkpt><trkpt lat="43.65585840330183" lon="2.6426703263368556"><ele>988.5</ele><time>2026-04-02T09:21:32Z</time></trkpt><trkpt lat="43.656078137927395" lon="2.6425510666563654"><ele>995.0</ele><time>2026-04-02T09:21:33Z</time></trkpt><trkpt lat="43.6562920453412" lon="2.6424227185780094"><ele>995.0</ele><time>2026-04-02T09:21:34Z</time></trkpt><trkpt lat="43.65648138416638" lon="2.6423030169963475"><ele>995.0</ele><time>2026-04-02T09:21:35Z</time></trkpt><trkpt lat="43.65665944136856" lon="2.6421841771037755"><ele>995.0</ele><time>2026-04-02T09:21:36Z</time></trkpt><trkpt lat="43.656825240678515" lon="2.6421129235837544"><ele>997.6666666666667</ele><time>2026-04-02T09:21:37Z</time></trkpt><trkpt lat="43.65698255294718" lon="2.6421395375922825"><ele>1000.3333333333333</ele><time>2026-04-02T09:21:38Z</time></trkpt><trkpt lat="43.65711075742081" lon="2.6422473802104"><ele>1003.0</ele><time>2026-04-02T09:21:39Z</time></trkpt><trkpt lat="43.657196846441174" lon="2.642433302583142"><ele>1003.0</ele><time>2026-04-02T09:21:40Z</time></trkpt><trkpt lat="43.657300264553044" lon="2.64261471350365"><ele>1003.0</ele><time>2026-04-02T09:21:41Z</time></trkpt><trkpt lat="43.65747071366643" lon="2.6427467089976044"><ele>1003.0</ele><time>2026-04-02T09:21:42Z</time></trkpt><trkpt lat="43.65768003764277" lon="2.642823043127364"><ele>999.0</ele><time>2026-04-02T09:21:43Z</time></trkpt><trkpt lat="43.65787861815838" lon="2.6429105713190233"><ele>995.0</ele><time>2026-04-02T09:21:44Z</time></trkpt><trkpt lat="43.65804636690427" lon="2.643059815428694"><ele>991.0</ele><time>2026-04-02T09:21:45Z</time></trkpt><trkpt lat="43.658158464981305" lon="2.6432684708943683"><ele>991.0</ele><time>2026-04-02T09:21:46Z</time></trkpt><trkpt lat="43.65825589158132" lon="2.6434391027422626"><ele>991.0</ele><time>2026-04-02T09:21:47Z</time></trkpt><trkpt lat="43.658394707804646" lon="2.6435347267292797"><ele>991.0</ele><time>2026-04-02T09:21:48Z</time></trkpt><trkpt lat="43.658577142115035" lon="2.6435372840684948"><ele>991.6666666666666</ele><time>2026-04-02T09:21:49Z</time></trkpt><trkpt lat="43.6587867745241" lon="2.64348251927164"><ele>992.3333333333333</ele><time>2026-04-02T09:21:50Z</time></trkpt><trkpt lat="43.65901566236073" lon="2.643433802316983"><ele>993.0</ele><time>2026-04-02T09:21:51Z</time></trkpt><trkpt lat="43.65924767159649" lon="2.643422743418188"><ele>989.0</ele><time>2026-04-02T09:21:52Z</time></trkpt><trkpt lat="43.65948858342892" lon="2.643410028585334"><ele>985.0</ele><time>2026-04-02T09:21:53Z</time></trkpt><trkpt lat="43.659716233018" lon="2.643405107442798"><ele>985.0</ele><time>2026-04-02T09:21:54Z</time></trkpt><trkpt lat="43.65993065938935" lon="2.6433952400262757"><ele>985.0</ele><time>2026-04-02T09:21:55Z</time></trkpt><trkpt lat="43.66014835722149" lon="2.6433682963241885"><ele>985.0</ele><time>2026-04-02T09:21:56Z</time></trkpt><trkpt lat="43.66034594545366" lon="2.6432991345686045"><ele>987.0</ele><time>2026-04-02T09:21:57Z</time></trkpt><trkpt lat="43.6605218559537" lon="2.6432177806802706"><ele>989.0</ele><time>2026-04-02T09:21:58Z</time></trkpt><trkpt lat="43.660690828976506" lon="2.6432075610056915"><ele>991.0</ele><time>2026-04-02T09:21:59Z</time></trkpt><trkpt lat="43.66086368332365" lon="2.643294511851127"><ele>991.0</ele><time>2026-04-02T09:22:00Z</time></trkpt><trkpt lat="43.66105021254925" lon="2.643443047259682"><ele>991.0</ele><time>2026-04-02T09:22:01Z</time></trkpt><trkpt lat="43.661250521172335" lon="2.643585289749849"><ele>991.0</ele><time>2026-04-02T09:22:02Z</time></trkpt><trkpt lat="43.661435055104675" lon="2.643687355517232"><ele>984.3333333333333</ele><time>2026-04-02T09:22:03Z</time></trkpt><trkpt lat="43.66159951467758" lon="2.6437402047657805"><ele>977.6666666666667</ele><time>2026-04-02T09:22:04Z</time></trkpt><trkpt lat="43.66176155576016" lon="2.6437148505704977"><ele>971.0</ele><time>2026-04-02T09:22:05Z</time></trkpt><trkpt lat="43.66190356523684" lon="2.6436383746382535"><ele>977.25</ele><time>2026-04-02T09:22:06Z</time></trkpt><trkpt lat="43.66201267936403" lon="2.643645151650018"><ele>983.5</ele><time>2026-04-02T09:22:07Z</time></trkpt><trkpt lat="43.662094406661176" lon="2.64369737909475"><ele>989.75</ele><time>2026-04-02T09:22:08Z</time></trkpt><trkpt lat="43.662095266233464" lon="2.6438635479468573"><ele>996.0</ele><time>2026-04-02T09:22:09Z</time></trkpt><trkpt lat="43.66213377970912" lon="2.6440437948752566"><ele>996.0</ele><time>2026-04-02T09:22:10Z</time></trkpt><trkpt lat="43.66216205567831" lon="2.6442623390671858"><ele>996.0</ele><time>2026-04-02T09:22:11Z</time></trkpt><trkpt lat="43.66216754232116" lon="2.6445177928848618"><ele>996.0</ele><time>2026-04-02T09:22:12Z</time></trkpt><trkpt lat="43.66219908839398" lon="2.644772313663747"><ele>992.3333333333333</ele><time>2026-04-02T09:22:13Z</time></trkpt><trkpt lat="43.662231226134374" lon="2.6450040922566393"><ele>988.6666666666666</ele><time>2026-04-02T09:22:14Z</time></trkpt><trkpt lat="43.66223335203835" lon="2.6452122930777167"><ele>985.0</ele><time>2026-04-02T09:22:15Z</time></trkpt><trkpt lat="43.66216424868879" lon="2.645375362997787"><ele>984.0</ele><time>2026-04-02T09:22:16Z</time></trkpt><trkpt lat="43.66206865528767" lon="2.6455727748546987"><ele>983.0</ele><time>2026-04-02T09:22:17Z</time></trkpt><trkpt lat="43.66198685393973" lon="2.645799349282349"><ele>982.0</ele><time>2026-04-02T09:22:18Z</time></trkpt><trkpt lat="43.66191647990316" lon="2.6460073725824884"><ele>974.3333333333333</ele><time>2026-04-02T09:22:19Z</time></trkpt><trkpt lat="43.66189188427736" lon="2.6462683630163473"><ele>966.6666666666667</ele><time>2026-04-02T09:22:20Z</time></trkpt><trkpt lat="43.66190018710155" lon="2.646565872683296"><ele>959.0</ele><time>2026-04-02T09:22:21Z</time></trkpt><trkpt lat="43.66192682869062" lon="2.6468733249994565"><ele>957.0</ele><time>2026-04-02T09:22:22Z</time></trkpt><trkpt lat="43.661936667155686" lon="2.647155305543279"><ele>955.0</ele><time>2026-04-02T09:22:23Z</time></trkpt><trkpt lat="43.66197045356842" lon="2.6473746180231394"><ele>953.0</ele><time>2026-04-02T09:22:24Z</time></trkpt><trkpt lat="43.661999513691924" lon="2.6475450021201943"><ele>954.0</ele><time>2026-04-02T09:22:25Z</time></trkpt><trkpt lat="43.662078102551085" lon="2.647700678529943"><ele>955.0</ele><time>2026-04-02T09:22:26Z</time></trkpt><trkpt lat="43.662226967167946" lon="2.6478279764420303"><ele>956.0</ele><time>2026-04-02T09:22:27Z</time></trkpt><trkpt lat="43.66241613041598" lon="2.6479385126462756"><ele>956.0</ele><time>2026-04-02T09:22:28Z</time></trkpt><trkpt lat="43.66260788697486" lon="2.6480517292941173"><ele>956.0</ele><time>2026-04-02T09:22:29Z</time></trkpt><trkpt lat="43.66282024400806" lon="2.6481382136256486"><ele>956.0</ele><time>2026-04-02T09:22:30Z</time></trkpt><trkpt lat="43.66305137947089" lon="2.6481540544363593"><ele>956.0</ele><time>2026-04-02T09:22:31Z</time></trkpt><trkpt lat="43.66329552284146" lon="2.648121895471437"><ele>956.0</ele><time>2026-04-02T09:22:32Z</time></trkpt><trkpt lat="43.663534689272" lon="2.6480576258905453"><ele>956.0</ele><time>2026-04-02T09:22:33Z</time></trkpt><trkpt lat="43.66375139126676" lon="2.647977900420741"><ele>956.0</ele><time>2026-04-02T09:22:34Z</time></trkpt><trkpt lat="43.66394149289571" lon="2.6479175001205197"><ele>956.0</ele><time>2026-04-02T09:22:35Z</time></trkpt><trkpt lat="43.66410526409912" lon="2.647898823207294"><ele>956.0</ele><time>2026-04-02T09:22:36Z</time></trkpt><trkpt lat="43.6642317491346" lon="2.647878726629457"><ele>955.9999999999999</ele><time>2026-04-02T09:22:37Z</time></trkpt><trkpt lat="43.66432440902474" lon="2.647888576384639"><ele>955.9999999999999</ele><time>2026-04-02T09:22:38Z</time></trkpt><trkpt lat="43.66440189680068" lon="2.6479085133421187"><ele>956.0</ele><time>2026-04-02T09:22:39Z</time></trkpt><trkpt lat="43.664434963942846" lon="2.648050170076312"><ele>956.0</ele><time>2026-04-02T09:22:40Z</time></trkpt><trkpt lat="43.6644317684828" lon="2.6481967632681616"><ele>954.75</ele><time>2026-04-02T09:22:41Z</time></trkpt><trkpt lat="43.66446747686735" lon="2.648381737998378"><ele>953.5</ele><time>2026-04-02T09:22:42Z</time></trkpt><trkpt lat="43.664478197528496" lon="2.648567023388725"><ele>952.25</ele><time>2026-04-02T09:22:43Z</time></trkpt><trkpt lat="43.66449796157476" lon="2.6487148951992"><ele>951.0</ele><time>2026-04-02T09:22:44Z</time></trkpt><trkpt lat="43.664530340418054" lon="2.6488336997307487"><ele>951.0</ele><time>2026-04-02T09:22:45Z</time></trkpt><trkpt lat="43.66458389480351" lon="2.648912747748198"><ele>951.0</ele><time>2026-04-02T09:22:46Z</time></trkpt><trkpt lat="43.66465879253996" lon="2.648952747758378"><ele>951.0</ele><time>2026-04-02T09:22:47Z</time></trkpt><trkpt lat="43.66472692176664" lon="2.6489209578825603"><ele>951.0</ele><time>2026-04-02T09:22:48Z</time></trkpt><trkpt lat="43.66480656209582" lon="2.6489005826533605"><ele>951.0</ele><time>2026-04-02T09:25:52Z</time></trkpt><trkpt lat="43.66489624898947" lon="2.648892962726003"><ele>951.0</ele><time>2026-04-02T09:25:53Z</time></trkpt><trkpt lat="43.66502299478325" lon="2.648823150046249"><ele>951.0</ele><time>2026-04-02T09:25:54Z</time></trkpt><trkpt lat="43.665129591833264" lon="2.6487548295099272"><ele>951.0</ele><time>2026-04-02T09:25:55Z</time></trkpt><trkpt lat="43.66523711949502" lon="2.64867292043715"><ele>951.0</ele><time>2026-04-02T09:25:56Z</time></trkpt><trkpt lat="43.665373125401096" lon="2.648563241676142"><ele>951.0</ele><time>2026-04-02T09:25:57Z</time></trkpt><trkpt lat="43.66551152428747" lon="2.6484672919085144"><ele>949.0</ele><time>2026-04-02T09:25:58Z</time></trkpt><trkpt lat="43.66565173141233" lon="2.6483557817563765"><ele>947.0</ele><time>2026-04-02T09:25:59Z</time></trkpt><trkpt lat="43.66578023963456" lon="2.6482027232709275"><ele>945.0</ele><time>2026-04-02T09:26:00Z</time></trkpt><trkpt lat="43.66588606713277" lon="2.6480038788637414"><ele>950.6666666666667</ele><time>2026-04-02T09:26:01Z</time></trkpt><trkpt lat="43.66597029936161" lon="2.6477850348668497"><ele>956.3333333333334</ele><time>2026-04-02T09:26:02Z</time></trkpt><trkpt lat="43.66603464099461" lon="2.647561718953086"><ele>962.0</ele><time>2026-04-02T09:26:03Z</time></trkpt><trkpt lat="43.66606500819159" lon="2.647329865553089"><ele>962.0</ele><time>2026-04-02T09:26:04Z</time></trkpt><trkpt lat="43.66606797641122" lon="2.6471398465436313"><ele>962.0</ele><time>2026-04-02T09:26:05Z</time></trkpt><trkpt lat="43.666121104051854" lon="2.6469932164582444"><ele>962.0</ele><time>2026-04-02T09:26:06Z</time></trkpt><trkpt lat="43.666171450819384" lon="2.6468618099485486"><ele>962.0</ele><time>2026-04-02T09:26:07Z</time></trkpt><trkpt lat="43.66627635245154" lon="2.6467822261576246"><ele>961.75</ele><time>2026-04-02T09:26:08Z</time></trkpt><trkpt lat="43.66639908630003" lon="2.6467486355393173"><ele>961.5</ele><time>2026-04-02T09:26:09Z</time></trkpt><trkpt lat="43.66654729809877" lon="2.646737091203125"><ele>961.25</ele><time>2026-04-02T09:26:10Z</time></trkpt><trkpt lat="43.66670987353271" lon="2.646748968517709"><ele>961.0</ele><time>2026-04-02T09:26:11Z</time></trkpt><trkpt lat="43.66686981877678" lon="2.6467636078886696"><ele>959.75</ele><time>2026-04-02T09:26:12Z</time></trkpt><trkpt lat="43.66702457853436" lon="2.646788951579495"><ele>958.5</ele><time>2026-04-02T09:26:13Z</time></trkpt><trkpt lat="43.667167083771325" lon="2.6468211739934993"><ele>957.25</ele><time>2026-04-02T09:26:14Z</time></trkpt><trkpt lat="43.66728572718125" lon="2.6469327998758176"><ele>956.0</ele><time>2026-04-02T09:26:15Z</time></trkpt><trkpt lat="43.667428035903704" lon="2.647080896800338"><ele>959.3333333333334</ele><time>2026-04-02T09:26:16Z</time></trkpt><trkpt lat="43.667586643597375" lon="2.6472348853960117"><ele>962.6666666666667</ele><time>2026-04-02T09:26:17Z</time></trkpt><trkpt lat="43.66772567542933" lon="2.647384969626497"><ele>966.0</ele><time>2026-04-02T09:26:18Z</time></trkpt><trkpt lat="43.667839247707484" lon="2.6474919569527837"><ele>966.0</ele><time>2026-04-02T09:26:19Z</time></trkpt><trkpt lat="43.66790191266341" lon="2.6476161535574034"><ele>965.9999999999999</ele><time>2026-04-02T09:26:20Z</time></trkpt><trkpt lat="43.667966440302976" lon="2.6477209063960756"><ele>965.9999999999999</ele><time>2026-04-02T09:26:21Z</time></trkpt><trkpt lat="43.66796168158067" lon="2.6478329854728955"><ele>966.0</ele><time>2026-04-02T09:26:23Z</time></trkpt><trkpt lat="43.667960608032075" lon="2.6480101661491027"><ele>966.0</ele><time>2026-04-02T09:26:27Z</time></trkpt><trkpt lat="43.66802655567461" lon="2.648179239536511"><ele>965.0</ele><time>2026-04-02T09:26:28Z</time></trkpt><trkpt lat="43.6680867177371" lon="2.6483753082930646"><ele>964.0</ele><time>2026-04-02T09:26:29Z</time></trkpt><trkpt lat="43.668140301128126" lon="2.6485915326852516"><ele>963.0</ele><time>2026-04-02T09:26:30Z</time></trkpt><trkpt lat="43.66819422009448" lon="2.648833715494765"><ele>962.3333333333333</ele><time>2026-04-02T09:26:31Z</time></trkpt><trkpt lat="43.6682426949065" lon="2.6490878372794437"><ele>961.6666666666666</ele><time>2026-04-02T09:26:32Z</time></trkpt><trkpt lat="43.668271120449795" lon="2.649316099478277"><ele>961.0</ele><time>2026-04-02T09:26:33Z</time></trkpt><trkpt lat="43.668292187217695" lon="2.6495352569207204"><ele>959.3333333333333</ele><time>2026-04-02T09:26:34Z</time></trkpt><trkpt lat="43.66834266784985" lon="2.6497422097155168"><ele>957.6666666666667</ele><time>2026-04-02T09:26:35Z</time></trkpt><trkpt lat="43.6684472420556" lon="2.6499181742636404"><ele>956.0</ele><time>2026-04-02T09:26:36Z</time></trkpt><trkpt lat="43.668582724271836" lon="2.650069134333553"><ele>956.6666666666667</ele><time>2026-04-02T09:26:37Z</time></trkpt><trkpt lat="43.66873194436491" lon="2.650212982904972"><ele>957.3333333333333</ele><time>2026-04-02T09:26:38Z</time></trkpt><trkpt lat="43.668877015046895" lon="2.650355552306507"><ele>958.0</ele><time>2026-04-02T09:26:39Z</time></trkpt><trkpt lat="43.66902136507758" lon="2.650488156141151"><ele>958.0</ele><time>2026-04-02T09:26:40Z</time></trkpt><trkpt lat="43.669172862987196" lon="2.650612046699788"><ele>958.0</ele><time>2026-04-02T09:26:41Z</time></trkpt><trkpt lat="43.66933257248192" lon="2.6507131232011742"><ele>958.0</ele><time>2026-04-02T09:26:42Z</time></trkpt><trkpt lat="43.66949943470462" lon="2.6507798472073327"><ele>960.0</ele><time>2026-04-02T09:26:43Z</time></trkpt><trkpt lat="43.66967427508516" lon="2.650790677592664"><ele>962.0</ele><time>2026-04-02T09:26:44Z</time></trkpt><trkpt lat="43.669853659925245" lon="2.6507408659029332"><ele>964.0</ele><time>2026-04-02T09:26:45Z</time></trkpt><trkpt lat="43.67001923115288" lon="2.650651707583779"><ele>964.0</ele><time>2026-04-02T09:26:46Z</time></trkpt><trkpt lat="43.67018221116407" lon="2.6505448903101834"><ele>964.0</ele><time>2026-04-02T09:26:47Z</time></trkpt><trkpt lat="43.6703467758289" lon="2.650455203494871"><ele>964.0</ele><time>2026-04-02T09:26:48Z</time></trkpt><trkpt lat="43.67051991533501" lon="2.650392541622015"><ele>963.6666666666666</ele><time>2026-04-02T09:26:49Z</time></trkpt><trkpt lat="43.670694067836834" lon="2.65034683732044"><ele>963.3333333333333</ele><time>2026-04-02T09:26:50Z</time></trkpt><trkpt lat="43.67086557515398" lon="2.6503139124472592"><ele>963.0</ele><time>2026-04-02T09:26:51Z</time></trkpt><trkpt lat="43.671044479690565" lon="2.6503093206134873"><ele>964.0</ele><time>2026-04-02T09:26:52Z</time></trkpt><trkpt lat="43.67122659760591" lon="2.650305254658686"><ele>965.0</ele><time>2026-04-02T09:26:53Z</time></trkpt><trkpt lat="43.67140900123846" lon="2.6502917530480206"><ele>966.0</ele><time>2026-04-02T09:26:54Z</time></trkpt><trkpt lat="43.671596685222" lon="2.650310141050113"><ele>966.0</ele><time>2026-04-02T09:26:55Z</time></trkpt><trkpt lat="43.67179198971979" lon="2.6503501603761483"><ele>966.0</ele><time>2026-04-02T09:26:56Z</time></trkpt><trkpt lat="43.671992967537626" lon="2.6504023814879183"><ele>966.0</ele><time>2026-04-02T09:26:57Z</time></trkpt><trkpt lat="43.672186993883486" lon="2.650462806326024"><ele>969.5</ele><time>2026-04-02T09:26:58Z</time></trkpt><trkpt lat="43.6724007232787" lon="2.650580023458063"><ele>973.0</ele><time>2026-04-02T09:26:59Z</time></trkpt><trkpt lat="43.672662178176225" lon="2.6506622702487257"><ele>978.0</ele><time>2026-04-02T09:27:00Z</time></trkpt><trkpt lat="43.67293215727016" lon="2.6507252474198415"><ele>983.0</ele><time>2026-04-02T09:27:01Z</time></trkpt><trkpt lat="43.673182988382045" lon="2.650840064390662"><ele>983.0</ele><time>2026-04-02T09:27:02Z</time></trkpt><trkpt lat="43.673413463357775" lon="2.6510047898639635"><ele>983.0</ele><time>2026-04-02T09:27:03Z</time></trkpt><trkpt lat="43.673667324277616" lon="2.6511171206676027"><ele>979.5</ele><time>2026-04-02T09:27:04Z</time></trkpt><trkpt lat="43.67393825253488" lon="2.6512279257722065"><ele>976.0</ele><time>2026-04-02T09:27:05Z</time></trkpt><trkpt lat="43.67421984677267" lon="2.6513401765661597"><ele>982.5</ele><time>2026-04-02T09:27:06Z</time></trkpt><trkpt lat="43.674499885141095" lon="2.6514645116862083"><ele>989.0</ele><time>2026-04-02T09:27:07Z</time></trkpt><trkpt lat="43.67480014055099" lon="2.651554782308293"><ele>989.0</ele><time>2026-04-02T09:27:08Z</time></trkpt><trkpt lat="43.67508484387867" lon="2.651593135130396"><ele>989.0</ele><time>2026-04-02T09:27:09Z</time></trkpt><trkpt lat="43.67534514635041" lon="2.6516174560770405"><ele>991.0</ele><time>2026-04-02T09:27:10Z</time></trkpt><trkpt lat="43.67558146034398" lon="2.651696746311234"><ele>993.0</ele><time>2026-04-02T09:27:11Z</time></trkpt><trkpt lat="43.67580873776589" lon="2.6518193783379154"><ele>993.0</ele><time>2026-04-02T09:27:12Z</time></trkpt><trkpt lat="43.676039758211736" lon="2.6519561984292914"><ele>993.0</ele><time>2026-04-02T09:27:13Z</time></trkpt><trkpt lat="43.676266864979645" lon="2.652179072562012"><ele>993.5</ele><time>2026-04-02T09:27:14Z</time></trkpt><trkpt lat="43.67648176914439" lon="2.6524430309457583"><ele>994.0</ele><time>2026-04-02T09:27:15Z</time></trkpt><trkpt lat="43.67667987281004" lon="2.652740728665051"><ele>992.0</ele><time>2026-04-02T09:27:16Z</time></trkpt><trkpt lat="43.676878083157874" lon="2.6530509904497364"><ele>990.0</ele><time>2026-04-02T09:27:17Z</time></trkpt><trkpt lat="43.67707499158767" lon="2.653318936982482"><ele>994.5</ele><time>2026-04-02T09:27:18Z</time></trkpt><trkpt lat="43.677252987011784" lon="2.6535625805440612"><ele>999.0</ele><time>2026-04-02T09:27:19Z</time></trkpt><trkpt lat="43.677402532310886" lon="2.653797834435944"><ele>999.0</ele><time>2026-04-02T09:27:20Z</time></trkpt><trkpt lat="43.677517847237965" lon="2.6540174055790264"><ele>999.0</ele><time>2026-04-02T09:27:21Z</time></trkpt><trkpt lat="43.677588339845656" lon="2.654241821285946"><ele>999.0</ele><time>2026-04-02T09:27:22Z</time></trkpt><trkpt lat="43.67759160115423" lon="2.6544822556462457"><ele>999.6666666666667</ele><time>2026-04-02T09:27:23Z</time></trkpt><trkpt lat="43.677538317966295" lon="2.654738609082078"><ele>1000.3333333333334</ele><time>2026-04-02T09:27:24Z</time></trkpt><trkpt lat="43.67744342344858" lon="2.6550050338500983"><ele>1001.0</ele><time>2026-04-02T09:27:25Z</time></trkpt><trkpt lat="43.677350559362154" lon="2.6552975975899082"><ele>1002.6666666666667</ele><time>2026-04-02T09:27:26Z</time></trkpt><trkpt lat="43.67728328765706" lon="2.655606933462405"><ele>1004.3333333333333</ele><time>2026-04-02T09:27:27Z</time></trkpt><trkpt lat="43.677237393407694" lon="2.6558760204689116"><ele>1006.0</ele><time>2026-04-02T09:27:28Z</time></trkpt><trkpt lat="43.67720774254689" lon="2.6561092074414985"><ele>1006.0</ele><time>2026-04-02T09:27:29Z</time></trkpt><trkpt lat="43.6772102683399" lon="2.6563107389301837"><ele>1006.0</ele><time>2026-04-02T09:27:30Z</time></trkpt><trkpt lat="43.6772814947662" lon="2.6564871098642246"><ele>1006.0</ele><time>2026-04-02T09:27:31Z</time></trkpt><trkpt lat="43.677409344439354" lon="2.6566221555548255"><ele>1006.0</ele><time>2026-04-02T09:27:32Z</time></trkpt><trkpt lat="43.67758425034553" lon="2.6567111221349293"><ele>1006.0</ele><time>2026-04-02T09:27:33Z</time></trkpt><trkpt lat="43.67779631851685" lon="2.656782374588324"><ele>1006.0</ele><time>2026-04-02T09:27:34Z</time></trkpt><trkpt lat="43.6780192147318" lon="2.656874088060921"><ele>1004.0</ele><time>2026-04-02T09:27:35Z</time></trkpt><trkpt lat="43.67824046465036" lon="2.6569592581762422"><ele>1002.0</ele><time>2026-04-02T09:27:36Z</time></trkpt><trkpt lat="43.67847639152756" lon="2.6569798037324217"><ele>1004.0</ele><time>2026-04-02T09:27:37Z</time></trkpt><trkpt lat="43.6787068659609" lon="2.65698250396183"><ele>1006.0</ele><time>2026-04-02T09:27:38Z</time></trkpt><trkpt lat="43.67892679138735" lon="2.6570374006831"><ele>1006.0</ele><time>2026-04-02T09:27:39Z</time></trkpt><trkpt lat="43.679094456809274" lon="2.6571002440269544"><ele>1006.0</ele><time>2026-04-02T09:27:40Z</time></trkpt><trkpt lat="43.67926041553047" lon="2.65712722178196"><ele>1006.0</ele><time>2026-04-02T09:27:41Z</time></trkpt><trkpt lat="43.67940396324759" lon="2.6570924127466475"><ele>1006.6666666666666</ele><time>2026-04-02T09:27:42Z</time></trkpt><trkpt lat="43.67951962165071" lon="2.656989351906159"><ele>1007.3333333333333</ele><time>2026-04-02T09:27:43Z</time></trkpt><trkpt lat="43.67961269249615" lon="2.6568479131264606"><ele>1008.0</ele><time>2026-04-02T09:27:44Z</time></trkpt><trkpt lat="43.67971141087746" lon="2.656649035304209"><ele>1010.0</ele><time>2026-04-02T09:27:45Z</time></trkpt><trkpt lat="43.679818534203335" lon="2.656432237212352"><ele>1012.0</ele><time>2026-04-02T09:27:46Z</time></trkpt><trkpt lat="43.67993476500086" lon="2.6562262733300486"><ele>1014.0</ele><time>2026-04-02T09:27:47Z</time></trkpt><trkpt lat="43.680053740057005" lon="2.656040850503948"><ele>1016.0</ele><time>2026-04-02T09:27:48Z</time></trkpt><trkpt lat="43.68024434141106" lon="2.655949060498741"><ele>1018.0</ele><time>2026-04-02T09:27:49Z</time></trkpt><trkpt lat="43.68043941000973" lon="2.6559223631291626"><ele>1020.0</ele><time>2026-04-02T09:27:50Z</time></trkpt><trkpt lat="43.680639911516586" lon="2.6559765152409014"><ele>1020.0</ele><time>2026-04-02T09:27:51Z</time></trkpt><trkpt lat="43.680838472563806" lon="2.6561113626493413"><ele>1020.0</ele><time>2026-04-02T09:27:52Z</time></trkpt><trkpt lat="43.68101733151238" lon="2.656313465775179"><ele>1023.5</ele><time>2026-04-02T09:27:53Z</time></trkpt><trkpt lat="43.68117377793653" lon="2.6565647114758124"><ele>1027.0</ele><time>2026-04-02T09:27:54Z</time></trkpt><trkpt lat="43.68132240722368" lon="2.656847170404307"><ele>1025.0</ele><time>2026-04-02T09:27:55Z</time></trkpt><trkpt lat="43.681494113106744" lon="2.657118365412279"><ele>1023.0</ele><time>2026-04-02T09:27:56Z</time></trkpt><trkpt lat="43.68166877351861" lon="2.6573806054464306"><ele>1023.0</ele><time>2026-04-02T09:27:57Z</time></trkpt><trkpt lat="43.68184595099867" lon="2.6576387439348284"><ele>1023.0</ele><time>2026-04-02T09:27:58Z</time></trkpt><trkpt lat="43.68201348089993" lon="2.657889311600524"><ele>1025.6666666666667</ele><time>2026-04-02T09:27:59Z</time></trkpt><trkpt lat="43.6821676447457" lon="2.6581092266751734"><ele>1028.3333333333335</ele><time>2026-04-02T09:28:00Z</time></trkpt><trkpt lat="43.682317888641684" lon="2.6583103805918133"><ele>1031.0</ele><time>2026-04-02T09:28:01Z</time></trkpt><trkpt lat="43.68247685421267" lon="2.6585098632658806"><ele>1029.0</ele><time>2026-04-02T09:28:02Z</time></trkpt><trkpt lat="43.68268319265118" lon="2.6586392550221536"><ele>1027.0</ele><time>2026-04-02T09:28:03Z</time></trkpt><trkpt lat="43.682919052054274" lon="2.6587520406271796"><ele>1027.0</ele><time>2026-04-02T09:28:04Z</time></trkpt><trkpt lat="43.68317149255794" lon="2.6588775128427544"><ele>1027.0</ele><time>2026-04-02T09:28:05Z</time></trkpt><trkpt lat="43.68339326964944" lon="2.6590104414861955"><ele>1027.0</ele><time>2026-04-02T09:28:06Z</time></trkpt><trkpt lat="43.68359616558689" lon="2.659125317134884"><ele>1027.0</ele><time>2026-04-02T09:28:07Z</time></trkpt><trkpt lat="43.68380314565397" lon="2.6591758644890486"><ele>1027.0</ele><time>2026-04-02T09:28:08Z</time></trkpt><trkpt lat="43.684025931124886" lon="2.659133839264234"><ele>1027.6666666666665</ele><time>2026-04-02T09:28:09Z</time></trkpt><trkpt lat="43.684242003621804" lon="2.6590536859289498"><ele>1028.3333333333333</ele><time>2026-04-02T09:28:10Z</time></trkpt><trkpt lat="43.684430408713716" lon="2.6590475226032377"><ele>1029.0</ele><time>2026-04-02T09:28:11Z</time></trkpt><trkpt lat="43.68459721490189" lon="2.659139915424617"><ele>1029.6666666666667</ele><time>2026-04-02T09:28:12Z</time></trkpt><trkpt lat="43.68476766831805" lon="2.659322170393437"><ele>1030.3333333333335</ele><time>2026-04-02T09:28:13Z</time></trkpt><trkpt lat="43.684916915003576" lon="2.6594502322590983"><ele>1031.0</ele><time>2026-04-02T09:28:14Z</time></trkpt><trkpt lat="43.68509283351049" lon="2.6594575384711527"><ele>1024.0</ele><time>2026-04-02T09:28:15Z</time></trkpt><trkpt lat="43.68529397736815" lon="2.659350614763146"><ele>1017.0</ele><time>2026-04-02T09:28:16Z</time></trkpt><trkpt lat="43.685499736843006" lon="2.6591734862455954"><ele>1017.0</ele><time>2026-04-02T09:28:17Z</time></trkpt><trkpt lat="43.685704980982436" lon="2.6590053056835394"><ele>1017.0</ele><time>2026-04-02T09:28:18Z</time></trkpt><trkpt lat="43.685903419321264" lon="2.6588344047452015"><ele>1017.0</ele><time>2026-04-02T09:28:19Z</time></trkpt><trkpt lat="43.686066291363176" lon="2.6586474663920003"><ele>1017.0</ele><time>2026-04-02T09:28:20Z</time></trkpt><trkpt lat="43.68620072262616" lon="2.658460501017021"><ele>1017.0</ele><time>2026-04-02T09:28:21Z</time></trkpt><trkpt lat="43.686360210279624" lon="2.6583787438301907"><ele>1019.3333333333333</ele><time>2026-04-02T09:28:22Z</time></trkpt><trkpt lat="43.68651371903241" lon="2.658354131765339"><ele>1021.6666666666666</ele><time>2026-04-02T09:28:23Z</time></trkpt><trkpt lat="43.6866655554201" lon="2.6584233817365455"><ele>1024.0</ele><time>2026-04-02T09:28:24Z</time></trkpt><trkpt lat="43.68684490861517" lon="2.658552746446652"><ele>1020.0</ele><time>2026-04-02T09:28:25Z</time></trkpt><trkpt lat="43.68705306880578" lon="2.6586790302340666"><ele>1016.0</ele><time>2026-04-02T09:28:26Z</time></trkpt><trkpt lat="43.687267307021614" lon="2.658857900725048"><ele>1016.0</ele><time>2026-04-02T09:28:27Z</time></trkpt><trkpt lat="43.68748792552531" lon="2.6590246994516673"><ele>1016.0</ele><time>2026-04-02T09:28:28Z</time></trkpt><trkpt lat="43.68768277217527" lon="2.659240783694654"><ele>1014.0</ele><time>2026-04-02T09:28:29Z</time></trkpt><trkpt lat="43.68788269498622" lon="2.659448448612213"><ele>1012.0</ele><time>2026-04-02T09:28:30Z</time></trkpt><trkpt lat="43.6880684402822" lon="2.6596266248179496"><ele>1012.0</ele><time>2026-04-02T09:28:31Z</time></trkpt><trkpt lat="43.68822631292314" lon="2.6598147361174598"><ele>1012.0</ele><time>2026-04-02T09:28:32Z</time></trkpt><trkpt lat="43.68835100425206" lon="2.6600328380062"><ele>1012.0</ele><time>2026-04-02T09:28:33Z</time></trkpt><trkpt lat="43.68845190186831" lon="2.6602704256482292"><ele>1013.0</ele><time>2026-04-02T09:28:34Z</time></trkpt><trkpt lat="43.68851873490441" lon="2.6605498702365393"><ele>1014.0</ele><time>2026-04-02T09:28:35Z</time></trkpt><trkpt lat="43.68856852358897" lon="2.660868381064119"><ele>1015.0</ele><time>2026-04-02T09:28:36Z</time></trkpt><trkpt lat="43.68863962341008" lon="2.661183645047915"><ele>1015.0</ele><time>2026-04-02T09:28:37Z</time></trkpt><trkpt lat="43.68874194968899" lon="2.6615019328982923"><ele>1015.0</ele><time>2026-04-02T09:28:38Z</time></trkpt><trkpt lat="43.688860963265434" lon="2.661813427845996"><ele>1010.0</ele><time>2026-04-02T09:28:39Z</time></trkpt><trkpt lat="43.68898352618876" lon="2.6620987210088884"><ele>1005.0</ele><time>2026-04-02T09:28:40Z</time></trkpt><trkpt lat="43.68914987884123" lon="2.66234952130358"><ele>1005.0</ele><time>2026-04-02T09:28:41Z</time></trkpt><trkpt lat="43.689352991535664" lon="2.6625719918983504"><ele>1005.0</ele><time>2026-04-02T09:28:42Z</time></trkpt><trkpt lat="43.68953385498457" lon="2.6627874396917255"><ele>1006.3333333333333</ele><time>2026-04-02T09:28:43Z</time></trkpt><trkpt lat="43.68964576207131" lon="2.6630245094008314"><ele>1007.6666666666666</ele><time>2026-04-02T09:28:44Z</time></trkpt><trkpt lat="43.68971950976413" lon="2.6632471672040356"><ele>1009.0</ele><time>2026-04-02T09:28:45Z</time></trkpt><trkpt lat="43.689731606188055" lon="2.6634918324498273"><ele>1008.3333333333333</ele><time>2026-04-02T09:28:46Z</time></trkpt><trkpt lat="43.689704901161896" lon="2.663752927827674"><ele>1007.6666666666667</ele><time>2026-04-02T09:28:47Z</time></trkpt><trkpt lat="43.68965402157904" lon="2.6640361679870432"><ele>1007.0</ele><time>2026-04-02T09:28:48Z</time></trkpt><trkpt lat="43.689614646180075" lon="2.6643129766130667"><ele>1006.0</ele><time>2026-04-02T09:28:49Z</time></trkpt><trkpt lat="43.68961083696597" lon="2.664585538603863"><ele>1005.0</ele><time>2026-04-02T09:28:50Z</time></trkpt><trkpt lat="43.68968183523668" lon="2.6648512866456384"><ele>1004.0</ele><time>2026-04-02T09:28:51Z</time></trkpt><trkpt lat="43.68981056779247" lon="2.665087294353727"><ele>1000.5</ele><time>2026-04-02T09:28:52Z</time></trkpt><trkpt lat="43.68998316027669" lon="2.665308736952215"><ele>997.0</ele><time>2026-04-02T09:28:53Z</time></trkpt><trkpt lat="43.69016558354725" lon="2.6655394538106316"><ele>1001.0</ele><time>2026-04-02T09:28:54Z</time></trkpt><trkpt lat="43.69033608239776" lon="2.6657917266284143"><ele>1005.0</ele><time>2026-04-02T09:28:55Z</time></trkpt><trkpt lat="43.690497128490065" lon="2.666040641545549"><ele>1005.0</ele><time>2026-04-02T09:28:56Z</time></trkpt><trkpt lat="43.6906420882607" lon="2.6662654368118113"><ele>1005.0</ele><time>2026-04-02T09:28:57Z</time></trkpt><trkpt lat="43.690730975152746" lon="2.6665228711218503"><ele>1005.0</ele><time>2026-04-02T09:28:58Z</time></trkpt><trkpt lat="43.690798941140955" lon="2.666812293929347"><ele>1005.5</ele><time>2026-04-02T09:28:59Z</time></trkpt><trkpt lat="43.69082330908103" lon="2.667134382601668"><ele>1006.0</ele><time>2026-04-02T09:29:00Z</time></trkpt><trkpt lat="43.690819725549105" lon="2.6674707474836707"><ele>1007.0</ele><time>2026-04-02T09:29:01Z</time></trkpt><trkpt lat="43.690794126090054" lon="2.6678179280640877"><ele>1008.0</ele><time>2026-04-02T09:29:02Z</time></trkpt><trkpt lat="43.69077672067239" lon="2.6681689834128317"><ele>1008.0</ele><time>2026-04-02T09:29:03Z</time></trkpt><trkpt lat="43.690751267169354" lon="2.668488247712991"><ele>1008.0</ele><time>2026-04-02T09:29:04Z</time></trkpt><trkpt lat="43.69073781998698" lon="2.6687803289766445"><ele>1008.0</ele><time>2026-04-02T09:29:05Z</time></trkpt><trkpt lat="43.690745235694315" lon="2.6690650236500515"><ele>1007.6666666666667</ele><time>2026-04-02T09:29:06Z</time></trkpt><trkpt lat="43.69079676107786" lon="2.669355181622222"><ele>1007.3333333333334</ele><time>2026-04-02T09:29:07Z</time></trkpt><trkpt lat="43.690890393379476" lon="2.669634920065278"><ele>1007.0</ele><time>2026-04-02T09:29:08Z</time></trkpt><trkpt lat="43.69101837588051" lon="2.6699051008462353"><ele>1008.0</ele><time>2026-04-02T09:29:09Z</time></trkpt><trkpt lat="43.69111262017073" lon="2.6701945302371044"><ele>1009.0</ele><time>2026-04-02T09:29:10Z</time></trkpt><trkpt lat="43.691223986387364" lon="2.670489197498006"><ele>1009.0</ele><time>2026-04-02T09:29:11Z</time></trkpt><trkpt lat="43.69143061264813" lon="2.6707339891400443"><ele>1009.0</ele><time>2026-04-02T09:29:12Z</time></trkpt><trkpt lat="43.691516793272015" lon="2.6710638662992148"><ele>1008.5</ele><time>2026-04-02T09:29:13Z</time></trkpt><trkpt lat="43.69157108720933" lon="2.6714032310767735"><ele>1008.0</ele><time>2026-04-02T09:29:14Z</time></trkpt><trkpt lat="43.69160833130914" lon="2.6717520611986845"><ele>1007.0</ele><time>2026-04-02T09:29:15Z</time></trkpt><trkpt lat="43.691654249671956" lon="2.672095170070917"><ele>1006.0</ele><time>2026-04-02T09:29:16Z</time></trkpt><trkpt lat="43.69170580776059" lon="2.672428372462457"><ele>1006.0</ele><time>2026-04-02T09:29:17Z</time></trkpt><trkpt lat="43.69175128740355" lon="2.6727493597975878"><ele>1006.0</ele><time>2026-04-02T09:29:18Z</time></trkpt><trkpt lat="43.69179223897442" lon="2.67305062789877"><ele>1007.3333333333333</ele><time>2026-04-02T09:29:19Z</time></trkpt><trkpt lat="43.6918382606327" lon="2.6733172797213656"><ele>1008.6666666666667</ele><time>2026-04-02T09:29:20Z</time></trkpt><trkpt lat="43.691875435919336" lon="2.6735507550459854"><ele>1010.0</ele><time>2026-04-02T09:29:21Z</time></trkpt><trkpt lat="43.69192269385931" lon="2.6737839481124994"><ele>1007.3333333333334</ele><time>2026-04-02T09:29:22Z</time></trkpt><trkpt lat="43.69202061595279" lon="2.67402519539518"><ele>1004.6666666666667</ele><time>2026-04-02T09:29:23Z</time></trkpt><trkpt lat="43.69217097457979" lon="2.674249392004264"><ele>1002.0</ele><time>2026-04-02T09:29:24Z</time></trkpt><trkpt lat="43.69236079786578" lon="2.6744366761986242"><ele>999.0</ele><time>2026-04-02T09:29:25Z</time></trkpt><trkpt lat="43.69257867269982" lon="2.6745881218712624"><ele>996.0</ele><time>2026-04-02T09:29:26Z</time></trkpt><trkpt lat="43.692807325015025" lon="2.6747490851381546"><ele>996.0</ele><time>2026-04-02T09:29:27Z</time></trkpt><trkpt lat="43.69302257677795" lon="2.6749262731580927"><ele>996.0</ele><time>2026-04-02T09:29:28Z</time></trkpt><trkpt lat="43.693222419252486" lon="2.6750947269945007"><ele>994.0</ele><time>2026-04-02T09:29:29Z</time></trkpt><trkpt lat="43.69341859449039" lon="2.675281700145729"><ele>992.0</ele><time>2026-04-02T09:29:30Z</time></trkpt><trkpt lat="43.69360514208179" lon="2.6755341393301255"><ele>992.0</ele><time>2026-04-02T09:29:31Z</time></trkpt><trkpt lat="43.693777871207146" lon="2.67582970241327"><ele>992.0</ele><time>2026-04-02T09:29:32Z</time></trkpt><trkpt lat="43.693951213825656" lon="2.6761288916498307"><ele>992.5</ele><time>2026-04-02T09:29:33Z</time></trkpt><trkpt lat="43.694133001853956" lon="2.676420137200514"><ele>993.0</ele><time>2026-04-02T09:29:34Z</time></trkpt><trkpt lat="43.6943173688667" lon="2.6767153120375555"><ele>983.5</ele><time>2026-04-02T09:29:35Z</time></trkpt><trkpt lat="43.69448731424779" lon="2.6770247746181384"><ele>974.0</ele><time>2026-04-02T09:29:36Z</time></trkpt><trkpt lat="43.69463394319343" lon="2.6773250530527037"><ele>974.0</ele><time>2026-04-02T09:29:37Z</time></trkpt><trkpt lat="43.69477146231773" lon="2.677616593252472"><ele>974.0</ele><time>2026-04-02T09:29:38Z</time></trkpt><trkpt lat="43.69489712212601" lon="2.677926210784797"><ele>975.5</ele><time>2026-04-02T09:29:39Z</time></trkpt><trkpt lat="43.694993064943205" lon="2.6782777188016427"><ele>977.0</ele><time>2026-04-02T09:29:40Z</time></trkpt><trkpt lat="43.695054132842614" lon="2.678652558116875"><ele>978.0</ele><time>2026-04-02T09:29:41Z</time></trkpt><trkpt lat="43.69509680942437" lon="2.6790347992726526"><ele>979.0</ele><time>2026-04-02T09:29:42Z</time></trkpt><trkpt lat="43.6951403690349" lon="2.6794157149186044"><ele>980.0</ele><time>2026-04-02T09:29:43Z</time></trkpt><trkpt lat="43.69522116513486" lon="2.6797846965984147"><ele>981.0</ele><time>2026-04-02T09:29:44Z</time></trkpt><trkpt lat="43.69534657780558" lon="2.6801368042049365"><ele>970.5</ele><time>2026-04-02T09:29:45Z</time></trkpt><trkpt lat="43.695495095773246" lon="2.6804782575426667"><ele>960.0</ele><time>2026-04-02T09:29:46Z</time></trkpt><trkpt lat="43.69564087415757" lon="2.6808167148459723"><ele>960.0</ele><time>2026-04-02T09:29:47Z</time></trkpt><trkpt lat="43.69575503538427" lon="2.681170937478366"><ele>960.0</ele><time>2026-04-02T09:29:48Z</time></trkpt><trkpt lat="43.69584939764233" lon="2.681528546516095"><ele>960.0</ele><time>2026-04-02T09:29:49Z</time></trkpt><trkpt lat="43.695927113808665" lon="2.681873712815913"><ele>960.0</ele><time>2026-04-02T09:29:50Z</time></trkpt><trkpt lat="43.695973024283944" lon="2.6821892115535744"><ele>960.5</ele><time>2026-04-02T09:29:51Z</time></trkpt><trkpt lat="43.69598988144128" lon="2.6825297491170668"><ele>961.0</ele><time>2026-04-02T09:29:52Z</time></trkpt><trkpt lat="43.69596197942604" lon="2.682870863723975"><ele>960.0</ele><time>2026-04-02T09:29:53Z</time></trkpt><trkpt lat="43.69595148370917" lon="2.6832016238344987"><ele>959.0</ele><time>2026-04-02T09:29:54Z</time></trkpt><trkpt lat="43.69601633436927" lon="2.6835369838954772"><ele>948.0</ele><time>2026-04-02T09:29:55Z</time></trkpt><trkpt lat="43.69613593425606" lon="2.6838680428376906"><ele>937.0</ele><time>2026-04-02T09:29:56Z</time></trkpt><trkpt lat="43.6962912697013" lon="2.6841904505974403"><ele>940.5</ele><time>2026-04-02T09:29:57Z</time></trkpt><trkpt lat="43.696461996977746" lon="2.68451387560992"><ele>944.0</ele><time>2026-04-02T09:29:58Z</time></trkpt><trkpt lat="43.696621109794826" lon="2.6848470787010212"><ele>944.0</ele><time>2026-04-02T09:29:59Z</time></trkpt><trkpt lat="43.696790947984226" lon="2.6851801088073333"><ele>944.0</ele><time>2026-04-02T09:30:00Z</time></trkpt><trkpt lat="43.696971883885695" lon="2.685489416970291"><ele>938.0</ele><time>2026-04-02T09:30:01Z</time></trkpt><trkpt lat="43.697125867601926" lon="2.685739459424699"><ele>932.0</ele><time>2026-04-02T09:30:02Z</time></trkpt><trkpt lat="43.697277493924915" lon="2.685952125704228"><ele>933.0</ele><time>2026-04-02T09:30:03Z</time></trkpt><trkpt lat="43.69745098328746" lon="2.6861159996584063"><ele>934.0</ele><time>2026-04-02T09:30:04Z</time></trkpt><trkpt lat="43.69764884975918" lon="2.686222039749294"><ele>935.0</ele><time>2026-04-02T09:30:05Z</time></trkpt><trkpt lat="43.69786524887606" lon="2.6862602000957434"><ele>932.6666666666667</ele><time>2026-04-02T09:30:06Z</time></trkpt><trkpt lat="43.69807846773086" lon="2.6862048170195676"><ele>930.3333333333333</ele><time>2026-04-02T09:30:07Z</time></trkpt><trkpt lat="43.698267695035774" lon="2.686072101345577"><ele>928.0</ele><time>2026-04-02T09:30:08Z</time></trkpt><trkpt lat="43.69843899691289" lon="2.6858854667250447"><ele>928.0</ele><time>2026-04-02T09:30:09Z</time></trkpt><trkpt lat="43.69858635959202" lon="2.6856350012036576"><ele>928.0</ele><time>2026-04-02T09:30:10Z</time></trkpt><trkpt lat="43.6987009164984" lon="2.685336109615933"><ele>927.5</ele><time>2026-04-02T09:30:11Z</time></trkpt><trkpt lat="43.69876521108477" lon="2.684992027012074"><ele>927.0</ele><time>2026-04-02T09:30:12Z</time></trkpt><trkpt lat="43.698814104836714" lon="2.684640002625236"><ele>924.5</ele><time>2026-04-02T09:30:13Z</time></trkpt><trkpt lat="43.69888376440146" lon="2.6842819681272774"><ele>922.0</ele><time>2026-04-02T09:30:14Z</time></trkpt><trkpt lat="43.6989646368578" lon="2.6839116223599855"><ele>919.5</ele><time>2026-04-02T09:30:15Z</time></trkpt><trkpt lat="43.69904999210153" lon="2.6835376518578977"><ele>917.0</ele><time>2026-04-02T09:30:16Z</time></trkpt><trkpt lat="43.69913845895121" lon="2.68313522665886"><ele>912.0</ele><time>2026-04-02T09:30:17Z</time></trkpt><trkpt lat="43.69922529853208" lon="2.6827321347263524"><ele>907.0</ele><time>2026-04-02T09:30:18Z</time></trkpt><trkpt lat="43.69930512620049" lon="2.682348025895177"><ele>907.0</ele><time>2026-04-02T09:30:19Z</time></trkpt><trkpt lat="43.69939080027729" lon="2.6819547038971887"><ele>907.0</ele><time>2026-04-02T09:30:20Z</time></trkpt><trkpt lat="43.69946514323759" lon="2.681575334056511"><ele>907.0</ele><time>2026-04-02T09:30:21Z</time></trkpt><trkpt lat="43.69951782149842" lon="2.6811892282586234"><ele>907.0</ele><time>2026-04-02T09:30:22Z</time></trkpt><trkpt lat="43.699559334516685" lon="2.6808049700852896"><ele>907.0</ele><time>2026-04-02T09:30:23Z</time></trkpt><trkpt lat="43.699615760357254" lon="2.680436885024401"><ele>907.0</ele><time>2026-04-02T09:30:24Z</time></trkpt><trkpt lat="43.699688606466" lon="2.680080754163734"><ele>901.0</ele><time>2026-04-02T09:30:25Z</time></trkpt><trkpt lat="43.69978091525893" lon="2.6797574968792794"><ele>895.0</ele><time>2026-04-02T09:30:26Z</time></trkpt><trkpt lat="43.69987603988953" lon="2.679474455336948"><ele>890.6666666666666</ele><time>2026-04-02T09:30:27Z</time></trkpt><trkpt lat="43.699953612081266" lon="2.679242230728244"><ele>886.3333333333333</ele><time>2026-04-02T09:30:28Z</time></trkpt><trkpt lat="43.70004329764458" lon="2.6790235272051657"><ele>882.0</ele><time>2026-04-02T09:30:29Z</time></trkpt><trkpt lat="43.70019100109415" lon="2.6788528784627914"><ele>882.3333333333333</ele><time>2026-04-02T09:30:30Z</time></trkpt><trkpt lat="43.70033791463197" lon="2.6787512336518318"><ele>882.6666666666666</ele><time>2026-04-02T09:30:31Z</time></trkpt><trkpt lat="43.70048713301666" lon="2.678756946675907"><ele>883.0</ele><time>2026-04-02T09:30:32Z</time></trkpt><trkpt lat="43.70062164027078" lon="2.6788571478166214"><ele>883.0</ele><time>2026-04-02T09:30:33Z</time></trkpt><trkpt lat="43.700707821978995" lon="2.6790315250745578"><ele>883.0</ele><time>2026-04-02T09:30:34Z</time></trkpt><trkpt lat="43.700777501986536" lon="2.679274926896972"><ele>883.0</ele><time>2026-04-02T09:30:35Z</time></trkpt><trkpt lat="43.700830350881525" lon="2.6795717803817407"><ele>884.0</ele><time>2026-04-02T09:30:36Z</time></trkpt><trkpt lat="43.700891971131334" lon="2.6799063447958065"><ele>885.0</ele><time>2026-04-02T09:30:37Z</time></trkpt><trkpt lat="43.70095545804415" lon="2.6802683468844206"><ele>885.5</ele><time>2026-04-02T09:30:38Z</time></trkpt><trkpt lat="43.70103307017276" lon="2.6806479063365347"><ele>886.0</ele><time>2026-04-02T09:30:39Z</time></trkpt><trkpt lat="43.701123735872486" lon="2.681034956485612"><ele>871.0</ele><time>2026-04-02T09:30:40Z</time></trkpt><trkpt lat="43.70122885465744" lon="2.6814177521737643"><ele>856.0</ele><time>2026-04-02T09:30:41Z</time></trkpt><trkpt lat="43.70132095887536" lon="2.681823023481391"><ele>860.0</ele><time>2026-04-02T09:30:42Z</time></trkpt><trkpt lat="43.701444117594164" lon="2.682210012629614"><ele>864.0</ele><time>2026-04-02T09:30:43Z</time></trkpt><trkpt lat="43.7015559877872" lon="2.682609140408945"><ele>867.0</ele><time>2026-04-02T09:30:44Z</time></trkpt><trkpt lat="43.701685016112044" lon="2.682998983001891"><ele>870.0</ele><time>2026-04-02T09:30:45Z</time></trkpt><trkpt lat="43.70182098286641" lon="2.6833844012492505"><ele>858.5</ele><time>2026-04-02T09:30:46Z</time></trkpt><trkpt lat="43.701967264813184" lon="2.6837656333974773"><ele>847.0</ele><time>2026-04-02T09:30:47Z</time></trkpt><trkpt lat="43.70212426631155" lon="2.6841344124506565"><ele>851.5</ele><time>2026-04-02T09:30:48Z</time></trkpt><trkpt lat="43.70227944432723" lon="2.68449892865795"><ele>856.0</ele><time>2026-04-02T09:30:49Z</time></trkpt><trkpt lat="43.70243050316804" lon="2.684837192537344"><ele>856.0</ele><time>2026-04-02T09:30:50Z</time></trkpt><trkpt lat="43.70260517292828" lon="2.6851805565018747"><ele>856.0</ele><time>2026-04-02T09:30:51Z</time></trkpt><trkpt lat="43.70280704025096" lon="2.6854986530041125"><ele>850.0</ele><time>2026-04-02T09:30:52Z</time></trkpt><trkpt lat="43.703009038373565" lon="2.685784503823631"><ele>844.0</ele><time>2026-04-02T09:30:53Z</time></trkpt><trkpt lat="43.70320477755758" lon="2.6860610077129574"><ele>851.0</ele><time>2026-04-02T09:30:54Z</time></trkpt><trkpt lat="43.70339607791867" lon="2.686349722287504"><ele>858.0</ele><time>2026-04-02T09:30:55Z</time></trkpt><trkpt lat="43.703586706192475" lon="2.686645545691075"><ele>848.5</ele><time>2026-04-02T09:30:56Z</time></trkpt><trkpt lat="43.70376994021844" lon="2.6869300137366037"><ele>839.0</ele><time>2026-04-02T09:30:57Z</time></trkpt><trkpt lat="43.70394712157602" lon="2.6872022894948233"><ele>839.0</ele><time>2026-04-02T09:30:58Z</time></trkpt><trkpt lat="43.70411319656434" lon="2.6874506927290773"><ele>839.0</ele><time>2026-04-02T09:30:59Z</time></trkpt><trkpt lat="43.70427345587777" lon="2.6876913572055283"><ele>835.0</ele><time>2026-04-02T09:31:00Z</time></trkpt><trkpt lat="43.704433923483045" lon="2.6879203672890837"><ele>831.0</ele><time>2026-04-02T09:31:01Z</time></trkpt><trkpt lat="43.7045784700815" lon="2.6881428619691947"><ele>827.0</ele><time>2026-04-02T09:31:02Z</time></trkpt><trkpt lat="43.7047060781569" lon="2.688347415779849"><ele>827.0</ele><time>2026-04-02T09:31:03Z</time></trkpt><trkpt lat="43.704807067098194" lon="2.6885172800027513"><ele>827.0</ele><time>2026-04-02T09:31:04Z</time></trkpt><trkpt lat="43.70489784436767" lon="2.688638688062725"><ele>827.0</ele><time>2026-04-02T09:31:05Z</time></trkpt><trkpt lat="43.705000043187745" lon="2.688741808373032"><ele>827.0</ele><time>2026-04-02T09:31:06Z</time></trkpt><trkpt lat="43.70513015189488" lon="2.688793154986987"><ele>825.6</ele><time>2026-04-02T09:31:07Z</time></trkpt><trkpt lat="43.70525331664868" lon="2.688776350472985"><ele>824.2</ele><time>2026-04-02T09:31:08Z</time></trkpt><trkpt lat="43.705347052495604" lon="2.688718023784607"><ele>822.8</ele><time>2026-04-02T09:31:09Z</time></trkpt><trkpt lat="43.70542144679125" lon="2.688689233152138"><ele>821.4</ele><time>2026-04-02T09:31:12Z</time></trkpt><trkpt lat="43.705381703062635" lon="2.688773593180603"><ele>820.0</ele><time>2026-04-02T09:31:15Z</time></trkpt><trkpt lat="43.70541029660165" lon="2.688960345802519"><ele>819.9999999999999</ele><time>2026-04-02T09:31:16Z</time></trkpt><trkpt lat="43.70542718736689" lon="2.689062573910525"><ele>820.0</ele><time>2026-04-02T09:31:17Z</time></trkpt><trkpt lat="43.705460249309404" lon="2.6891658769211713"><ele>820.0</ele><time>2026-04-02T09:31:18Z</time></trkpt><trkpt lat="43.705496937323154" lon="2.689269841989945"><ele>820.0</ele><time>2026-04-02T09:31:19Z</time></trkpt><trkpt lat="43.70552019001853" lon="2.689354968789497"><ele>819.9999999999999</ele><time>2026-04-02T09:31:20Z</time></trkpt><trkpt lat="43.705555420320586" lon="2.689430338595843"><ele>820.0</ele><time>2026-04-02T09:31:21Z</time></trkpt><trkpt lat="43.705633500341804" lon="2.6895543082424935"><ele>819.0</ele><time>2026-04-02T09:31:23Z</time></trkpt><trkpt lat="43.70568421413605" lon="2.6896565817445803"><ele>818.0</ele><time>2026-04-02T09:31:25Z</time></trkpt><trkpt lat="43.70574747856051" lon="2.6897739578998037"><ele>817.0</ele><time>2026-04-02T09:31:27Z</time></trkpt><trkpt lat="43.70581431956339" lon="2.6898722867740776"><ele>816.0</ele><time>2026-04-02T09:31:29Z</time></trkpt><trkpt lat="43.705878567750666" lon="2.6899987457715877"><ele>815.0</ele><time>2026-04-02T09:31:31Z</time></trkpt><trkpt lat="43.70591809825051" lon="2.690076963571833"><ele>815.0</ele><time>2026-04-02T09:31:32Z</time></trkpt><trkpt lat="43.70595078201383" lon="2.690167961144172"><ele>815.0</ele><time>2026-04-02T09:31:33Z</time></trkpt><trkpt lat="43.70598479856002" lon="2.6902608190823583"><ele>815.0</ele><time>2026-04-02T09:31:34Z</time></trkpt><trkpt lat="43.706023152676906" lon="2.690348456878589"><ele>815.0</ele><time>2026-04-02T09:31:35Z</time></trkpt><trkpt lat="43.706064726049526" lon="2.6904327240534576"><ele>815.0</ele><time>2026-04-02T09:31:36Z</time></trkpt><trkpt lat="43.70610103479618" lon="2.6905063222978445"><ele>815.0</ele><time>2026-04-02T09:31:37Z</time></trkpt><trkpt lat="43.706152458750786" lon="2.6905935749941636"><ele>815.0</ele><time>2026-04-02T09:31:39Z</time></trkpt><trkpt lat="43.70620589151661" lon="2.69068238352411"><ele>813.5000000000001</ele><time>2026-04-02T09:31:43Z</time></trkpt><trkpt lat="43.70621978644368" lon="2.69079359910754"><ele>812.0</ele><time>2026-04-02T09:31:45Z</time></trkpt><trkpt lat="43.706227024265765" lon="2.69092004546464"><ele>810.5</ele><time>2026-04-02T09:31:47Z</time></trkpt><trkpt lat="43.706284647434494" lon="2.690956963175285"><ele>809.0</ele><time>2026-04-02T09:31:49Z</time></trkpt><trkpt lat="43.7063693776991" lon="2.691005709837186"><ele>807.5000000000001</ele><time>2026-04-02T09:31:52Z</time></trkpt><trkpt lat="43.70645315867108" lon="2.691034656293166"><ele>806.0</ele><time>2026-04-02T09:31:55Z</time></trkpt><trkpt lat="43.70651006047653" lon="2.691096225266771"><ele>805.3333333333334</ele><time>2026-04-02T09:31:57Z</time></trkpt><trkpt lat="43.70657209206117" lon="2.691133702905769"><ele>804.6666666666667</ele><time>2026-04-02T09:31:59Z</time></trkpt><trkpt lat="43.70666159779299" lon="2.691154759449552"><ele>804.0</ele><time>2026-04-02T09:32:02Z</time></trkpt><trkpt lat="43.70674721424738" lon="2.6911105953303602"><ele>803.3333333333333</ele><time>2026-04-02T09:32:05Z</time></trkpt><trkpt lat="43.70682388594554" lon="2.6911047365574676"><ele>802.6666666666666</ele><time>2026-04-02T09:32:08Z</time></trkpt><trkpt lat="43.70688338800962" lon="2.6911489681930574"><ele>802.0</ele><time>2026-04-02T09:32:10Z</time></trkpt><trkpt lat="43.70695146265961" lon="2.691226389958541"><ele>800.9999999999999</ele><time>2026-04-02T09:32:12Z</time></trkpt><trkpt lat="43.70699920788882" lon="2.6912843296781985"><ele>800.0</ele><time>2026-04-02T09:32:13Z</time></trkpt><trkpt lat="43.70707687944509" lon="2.6913895079190784"><ele>799.0</ele><time>2026-04-02T09:32:15Z</time></trkpt><trkpt lat="43.70715544681592" lon="2.691462896973279"><ele>798.0</ele><time>2026-04-02T09:32:17Z</time></trkpt><trkpt lat="43.70721082624759" lon="2.6915443296499375"><ele>796.9999999999999</ele><time>2026-04-02T09:32:19Z</time></trkpt><trkpt lat="43.70725110490782" lon="2.69163829866225"><ele>796.0</ele><time>2026-04-02T09:32:21Z</time></trkpt><trkpt lat="43.70724974243111" lon="2.6917362812680903"><ele>796.0</ele><time>2026-04-02T09:32:23Z</time></trkpt><trkpt lat="43.70718180928596" lon="2.691786611369324"><ele>796.0</ele><time>2026-04-02T09:32:25Z</time></trkpt><trkpt lat="43.70707254746893" lon="2.6919116870300273"><ele>796.0</ele><time>2026-04-02T09:32:27Z</time></trkpt><trkpt lat="43.70701150982592" lon="2.6919891199191235"><ele>796.0</ele><time>2026-04-02T09:32:28Z</time></trkpt><trkpt lat="43.706959951226104" lon="2.6920597177949688"><ele>796.0</ele><time>2026-04-02T09:32:29Z</time></trkpt><trkpt lat="43.70687469914603" lon="2.692174726596064"><ele>796.4</ele><time>2026-04-02T09:32:31Z</time></trkpt><trkpt lat="43.706807415002395" lon="2.6922937437507257"><ele>796.8</ele><time>2026-04-02T09:32:33Z</time></trkpt><trkpt lat="43.70673335231196" lon="2.6924291847584905"><ele>797.1999999999999</ele><time>2026-04-02T09:32:35Z</time></trkpt><trkpt lat="43.706674895580704" lon="2.692548553150853"><ele>797.5999999999999</ele><time>2026-04-02T09:32:37Z</time></trkpt><trkpt lat="43.706632605640586" lon="2.6926488500668895"><ele>798.0</ele><time>2026-04-02T09:32:39Z</time></trkpt><trkpt lat="43.7066295301581" lon="2.6928162917487053"><ele>798.0</ele><time>2026-04-02T09:32:41Z</time></trkpt><trkpt lat="43.70662906001473" lon="2.692925998418903"><ele>798.0</ele><time>2026-04-02T09:32:42Z</time></trkpt><trkpt lat="43.70663127060331" lon="2.6930398418645902"><ele>798.0</ele><time>2026-04-02T09:32:43Z</time></trkpt><trkpt lat="43.70663514608622" lon="2.6931317632656624"><ele>798.0</ele><time>2026-04-02T09:32:44Z</time></trkpt><trkpt lat="43.70666296899966" lon="2.693292546733092"><ele>798.0</ele><time>2026-04-02T09:32:46Z</time></trkpt><trkpt lat="43.706684344139646" lon="2.6933789709365916"><ele>798.0</ele><time>2026-04-02T09:32:47Z</time></trkpt><trkpt lat="43.7067058160737" lon="2.6934633501377294"><ele>798.0</ele><time>2026-04-02T09:32:48Z</time></trkpt><trkpt lat="43.70672833127957" lon="2.693551829279918"><ele>798.0</ele><time>2026-04-02T09:32:49Z</time></trkpt><trkpt lat="43.70675168015376" lon="2.6936431734881414"><ele>798.0</ele><time>2026-04-02T09:32:50Z</time></trkpt><trkpt lat="43.706775765756205" lon="2.6937352635533123"><ele>798.0</ele><time>2026-04-02T09:32:51Z</time></trkpt><trkpt lat="43.70679996711699" lon="2.6938277962269153"><ele>798.0</ele><time>2026-04-02T09:32:52Z</time></trkpt><trkpt lat="43.70682368303689" lon="2.6939184728174657"><ele>798.0</ele><time>2026-04-02T09:32:53Z</time></trkpt><trkpt lat="43.706847774549296" lon="2.694010585569012"><ele>798.0</ele><time>2026-04-02T09:32:54Z</time></trkpt><trkpt lat="43.70687180805716" lon="2.6941024764708885"><ele>798.2857142857143</ele><time>2026-04-02T09:32:55Z</time></trkpt><trkpt lat="43.70689603314667" lon="2.694195066411001"><ele>798.5714285714286</ele><time>2026-04-02T09:32:56Z</time></trkpt><trkpt lat="43.70691882509708" lon="2.6942870557165635"><ele>798.8571428571429</ele><time>2026-04-02T09:32:57Z</time></trkpt><trkpt lat="43.70694207039113" lon="2.6943808747904603"><ele>799.1428571428571</ele><time>2026-04-02T09:32:58Z</time></trkpt><trkpt lat="43.706965416709075" lon="2.694475101553376"><ele>799.4285714285714</ele><time>2026-04-02T09:32:59Z</time></trkpt><trkpt lat="43.70698883696311" lon="2.694569626910272"><ele>799.7142857142858</ele><time>2026-04-02T09:33:00Z</time></trkpt><trkpt lat="43.70701324973262" lon="2.694668157730314"><ele>800.0</ele><time>2026-04-02T09:33:01Z</time></trkpt><trkpt lat="43.70703726967891" lon="2.6947651090153983"><ele>799.5714285714287</ele><time>2026-04-02T09:33:02Z</time></trkpt><trkpt lat="43.7070772926518" lon="2.694919216079428"><ele>799.1428571428571</ele><time>2026-04-02T09:33:04Z</time></trkpt><trkpt lat="43.70709883450268" lon="2.6950035742665266"><ele>798.7142857142858</ele><time>2026-04-02T09:33:05Z</time></trkpt><trkpt lat="43.70712083019962" lon="2.6950897093679522"><ele>798.2857142857143</ele><time>2026-04-02T09:33:06Z</time></trkpt><trkpt lat="43.70714315604493" lon="2.6951769414512503"><ele>797.8571428571429</ele><time>2026-04-02T09:33:07Z</time></trkpt><trkpt lat="43.70716549774349" lon="2.695262775724676"><ele>797.4285714285714</ele><time>2026-04-02T09:33:08Z</time></trkpt><trkpt lat="43.70718802361938" lon="2.695349317660843"><ele>797.0</ele><time>2026-04-02T09:33:09Z</time></trkpt><trkpt lat="43.70720989981699" lon="2.6954333634971586"><ele>797.0000000000001</ele><time>2026-04-02T09:33:10Z</time></trkpt><trkpt lat="43.707233536934964" lon="2.6955241747463328"><ele>797.0</ele><time>2026-04-02T09:33:11Z</time></trkpt><trkpt lat="43.70725998586894" lon="2.6956257886152395"><ele>797.0</ele><time>2026-04-02T09:33:12Z</time></trkpt><trkpt lat="43.70728695708088" lon="2.6957294090675927"><ele>797.0</ele><time>2026-04-02T09:33:13Z</time></trkpt><trkpt lat="43.70731522401448" lon="2.6958380074839767"><ele>797.0000000000001</ele><time>2026-04-02T09:33:14Z</time></trkpt><trkpt lat="43.707344019354196" lon="2.695948635886843"><ele>797.0</ele><time>2026-04-02T09:33:15Z</time></trkpt><trkpt lat="43.70738583251359" lon="2.696054668363891"><ele>797.8333333333334</ele><time>2026-04-02T09:33:16Z</time></trkpt><trkpt lat="43.70740101780084" lon="2.696173101977673"><ele>798.6666666666667</ele><time>2026-04-02T09:33:17Z</time></trkpt><trkpt lat="43.70743026769982" lon="2.6962891339469772"><ele>799.5</ele><time>2026-04-02T09:33:18Z</time></trkpt><trkpt lat="43.70745842668811" lon="2.696400825576841"><ele>800.3333333333333</ele><time>2026-04-02T09:33:19Z</time></trkpt><trkpt lat="43.70748640175672" lon="2.6965151984476226"><ele>801.1666666666666</ele><time>2026-04-02T09:33:20Z</time></trkpt><trkpt lat="43.70751521942309" lon="2.6966286534351482"><ele>802.0</ele><time>2026-04-02T09:33:21Z</time></trkpt><trkpt lat="43.70754484325703" lon="2.6967417344717948"><ele>802.0</ele><time>2026-04-02T09:33:22Z</time></trkpt><trkpt lat="43.70757502093117" lon="2.6968569297567444"><ele>802.0</ele><time>2026-04-02T09:33:23Z</time></trkpt><trkpt lat="43.7076049259883" lon="2.6969721852335113"><ele>802.0</ele><time>2026-04-02T09:33:24Z</time></trkpt><trkpt lat="43.70763554239414" lon="2.697090299296826"><ele>802.0</ele><time>2026-04-02T09:33:25Z</time></trkpt><trkpt lat="43.7076671605001" lon="2.6972140447952873"><ele>802.0</ele><time>2026-04-02T09:33:26Z</time></trkpt><trkpt lat="43.707696846969036" lon="2.697330304933706"><ele>802.0</ele><time>2026-04-02T09:33:27Z</time></trkpt><trkpt lat="43.70772337824499" lon="2.69743420867897"><ele>802.0</ele><time>2026-04-02T09:33:28Z</time></trkpt><trkpt lat="43.707748284262834" lon="2.6975317473496907"><ele>802.0</ele><time>2026-04-02T09:33:29Z</time></trkpt><trkpt lat="43.70777171904435" lon="2.697623524525817"><ele>802.0</ele><time>2026-04-02T09:33:30Z</time></trkpt><trkpt lat="43.707794717535556" lon="2.69771359289592"><ele>802.0</ele><time>2026-04-02T09:33:31Z</time></trkpt><trkpt lat="43.707819893131266" lon="2.6978121875732133"><ele>802.0</ele><time>2026-04-02T09:33:32Z</time></trkpt><trkpt lat="43.70784344732885" lon="2.6979111810823926"><ele>802.0</ele><time>2026-04-02T09:33:33Z</time></trkpt><trkpt lat="43.70787513533721" lon="2.6980138922531984"><ele>802.0</ele><time>2026-04-02T09:33:34Z</time></trkpt><trkpt lat="43.70788909792526" lon="2.698125493743315"><ele>802.0</ele><time>2026-04-02T09:33:35Z</time></trkpt><trkpt lat="43.707867751416465" lon="2.698245250883205"><ele>802.0</ele><time>2026-04-02T09:33:36Z</time></trkpt><trkpt lat="43.707866774226616" lon="2.6983911233080495"><ele>802.0</ele><time>2026-04-02T09:33:37Z</time></trkpt><trkpt lat="43.707862448426944" lon="2.698559671687751"><ele>802.0</ele><time>2026-04-02T09:33:38Z</time></trkpt><trkpt lat="43.707857567471855" lon="2.6987477223780747"><ele>803.5</ele><time>2026-04-02T09:33:39Z</time></trkpt><trkpt lat="43.70785243910197" lon="2.69894530408266"><ele>805.0</ele><time>2026-04-02T09:33:40Z</time></trkpt><trkpt lat="43.70784664141496" lon="2.6991455679936016"><ele>806.5</ele><time>2026-04-02T09:33:41Z</time></trkpt><trkpt lat="43.707840209234824" lon="2.699352359291494"><ele>808.0</ele><time>2026-04-02T09:33:42Z</time></trkpt><trkpt lat="43.707833609622604" lon="2.6995645332620914"><ele>808.25</ele><time>2026-04-02T09:33:43Z</time></trkpt><trkpt lat="43.70782798840676" lon="2.699778176750661"><ele>808.5</ele><time>2026-04-02T09:33:44Z</time></trkpt><trkpt lat="43.70782418595213" lon="2.6999887644938982"><ele>808.75</ele><time>2026-04-02T09:33:45Z</time></trkpt><trkpt lat="43.70781911874901" lon="2.7001856869094767"><ele>809.0</ele><time>2026-04-02T09:33:46Z</time></trkpt><trkpt lat="43.70783669147173" lon="2.700375147067787"><ele>809.4000000000001</ele><time>2026-04-02T09:33:47Z</time></trkpt><trkpt lat="43.707858473178305" lon="2.7005428598151062"><ele>809.8</ele><time>2026-04-02T09:33:48Z</time></trkpt><trkpt lat="43.7078987988173" lon="2.7006774572259182"><ele>810.2</ele><time>2026-04-02T09:33:49Z</time></trkpt><trkpt lat="43.70795140445776" lon="2.7007836038833104"><ele>810.5999999999999</ele><time>2026-04-02T09:33:50Z</time></trkpt><trkpt lat="43.70801099669807" lon="2.700858190855589"><ele>811.0</ele><time>2026-04-02T09:33:51Z</time></trkpt><trkpt lat="43.70806285550952" lon="2.7009301280519993"><ele>811.0</ele><time>2026-04-02T09:33:52Z</time></trkpt><trkpt lat="43.708096581392546" lon="2.7010661488611065"><ele>811.0</ele><time>2026-04-02T09:33:53Z</time></trkpt><trkpt lat="43.708098084137816" lon="2.7012431006453523"><ele>811.0</ele><time>2026-04-02T09:33:54Z</time></trkpt><trkpt lat="43.708120915937" lon="2.701452710179326"><ele>811.0</ele><time>2026-04-02T09:33:55Z</time></trkpt><trkpt lat="43.70815115993993" lon="2.7016670111971526"><ele>812.3333333333333</ele><time>2026-04-02T09:33:56Z</time></trkpt><trkpt lat="43.70819003398613" lon="2.7018655009628403"><ele>813.6666666666667</ele><time>2026-04-02T09:33:57Z</time></trkpt><trkpt lat="43.708213044676086" lon="2.70208611474569"><ele>815.0</ele><time>2026-04-02T09:33:58Z</time></trkpt><trkpt lat="43.70824426199716" lon="2.702298118210971"><ele>815.25</ele><time>2026-04-02T09:33:59Z</time></trkpt><trkpt lat="43.70827240835157" lon="2.7024892658509256"><ele>815.5</ele><time>2026-04-02T09:34:00Z</time></trkpt><trkpt lat="43.70829907726885" lon="2.70266682177938"><ele>815.75</ele><time>2026-04-02T09:34:01Z</time></trkpt><trkpt lat="43.70833651337517" lon="2.702798314397293"><ele>816.0</ele><time>2026-04-02T09:34:02Z</time></trkpt><trkpt lat="43.708354605494094" lon="2.702901597829328"><ele>816.0</ele><time>2026-04-02T09:34:03Z</time></trkpt><trkpt lat="43.70840686261322" lon="2.702997019515694"><ele>816.0</ele><time>2026-04-02T09:34:04Z</time></trkpt><trkpt lat="43.70848006905377" lon="2.7030426760694977"><ele>816.0</ele><time>2026-04-02T09:34:05Z</time></trkpt><trkpt lat="43.70856805942708" lon="2.703127538984161"><ele>816.0</ele><time>2026-04-02T09:34:06Z</time></trkpt><trkpt lat="43.708678324790206" lon="2.70323796837387"><ele>816.0</ele><time>2026-04-02T09:34:07Z</time></trkpt><trkpt lat="43.70880744658625" lon="2.703384215412307"><ele>818.3333333333333</ele><time>2026-04-02T09:34:08Z</time></trkpt><trkpt lat="43.70892910761061" lon="2.70351461698007"><ele>820.6666666666666</ele><time>2026-04-02T09:34:09Z</time></trkpt><trkpt lat="43.70904753813581" lon="2.703650591122067"><ele>823.0</ele><time>2026-04-02T09:34:10Z</time></trkpt><trkpt lat="43.70914543409375" lon="2.7038259123642563"><ele>823.0</ele><time>2026-04-02T09:34:11Z</time></trkpt><trkpt lat="43.709256448188526" lon="2.70399531397627"><ele>823.0</ele><time>2026-04-02T09:34:12Z</time></trkpt><trkpt lat="43.709367933242916" lon="2.7041795644490962"><ele>823.0</ele><time>2026-04-02T09:34:13Z</time></trkpt><trkpt lat="43.70948638877356" lon="2.7043508725294254"><ele>825.0</ele><time>2026-04-02T09:34:14Z</time></trkpt><trkpt lat="43.70959152040128" lon="2.7045070954408996"><ele>827.0</ele><time>2026-04-02T09:34:15Z</time></trkpt><trkpt lat="43.709694511713735" lon="2.704631780583225"><ele>829.0</ele><time>2026-04-02T09:34:16Z</time></trkpt><trkpt lat="43.709777567552145" lon="2.7047520770266065"><ele>831.0</ele><time>2026-04-02T09:34:17Z</time></trkpt><trkpt lat="43.70983246892437" lon="2.7048768886929526"><ele>831.0</ele><time>2026-04-02T09:34:18Z</time></trkpt><trkpt lat="43.70987683214161" lon="2.7050055562064736"><ele>831.0</ele><time>2026-04-02T09:34:19Z</time></trkpt><trkpt lat="43.70991216993064" lon="2.7051211030596916"><ele>831.0</ele><time>2026-04-02T09:34:20Z</time></trkpt><trkpt lat="43.70994097967463" lon="2.70522585680579"><ele>831.0</ele><time>2026-04-02T09:34:21Z</time></trkpt><trkpt lat="43.70996421806066" lon="2.705316486114291"><ele>831.0</ele><time>2026-04-02T09:34:22Z</time></trkpt><trkpt lat="43.71000311989269" lon="2.705489901466648"><ele>831.4</ele><time>2026-04-02T09:34:24Z</time></trkpt><trkpt lat="43.71002307187402" lon="2.7055802703584564"><ele>831.8</ele><time>2026-04-02T09:34:25Z</time></trkpt><trkpt lat="43.71004734920495" lon="2.705759421504362"><ele>832.1999999999999</ele><time>2026-04-02T09:34:27Z</time></trkpt><trkpt lat="43.710042451472056" lon="2.7059271451905613"><ele>832.5999999999999</ele><time>2026-04-02T09:34:29Z</time></trkpt><trkpt lat="43.710052457029285" lon="2.706030730630677"><ele>833.0</ele><time>2026-04-02T09:34:31Z</time></trkpt><trkpt lat="43.70999805219939" lon="2.706153903995916"><ele>833.0</ele><time>2026-04-02T09:34:33Z</time></trkpt><trkpt lat="43.70996589401232" lon="2.7062643194587874"><ele>833.0</ele><time>2026-04-02T09:34:34Z</time></trkpt><trkpt lat="43.70992954010513" lon="2.706396230949821"><ele>833.0</ele><time>2026-04-02T09:34:35Z</time></trkpt><trkpt lat="43.70988499656504" lon="2.7065410247063086"><ele>833.0</ele><time>2026-04-02T09:34:36Z</time></trkpt><trkpt lat="43.70983705119156" lon="2.7066930739722506"><ele>833.0</ele><time>2026-04-02T09:34:37Z</time></trkpt><trkpt lat="43.70980424773812" lon="2.7068118197913096"><ele>834.4</ele><time>2026-04-02T09:34:38Z</time></trkpt><trkpt lat="43.70976495240271" lon="2.7069134490591877"><ele>835.8</ele><time>2026-04-02T09:34:39Z</time></trkpt><trkpt lat="43.70969201563101" lon="2.706962582998137"><ele>837.2</ele><time>2026-04-02T09:34:40Z</time></trkpt><trkpt lat="43.70959106864361" lon="2.706926433582408"><ele>838.6</ele><time>2026-04-02T09:34:42Z</time></trkpt><trkpt lat="43.7095237416538" lon="2.7069280725875657"><ele>840.0</ele><time>2026-04-02T09:34:45Z</time></trkpt><trkpt lat="43.70951756938059" lon="2.7071094937012408"><ele>840.0</ele><time>2026-04-02T09:34:49Z</time></trkpt><trkpt lat="43.70954720059509" lon="2.7072244885120353"><ele>840.0</ele><time>2026-04-02T09:34:51Z</time></trkpt><trkpt lat="43.709578087420745" lon="2.707315375594319"><ele>840.0</ele><time>2026-04-02T09:34:53Z</time></trkpt><trkpt lat="43.709552401924" lon="2.7074121758707443"><ele>840.0</ele><time>2026-04-02T09:34:56Z</time></trkpt><trkpt lat="43.70947444707167" lon="2.7069245715427774"><ele>840.0</ele><time>2026-04-02T09:35:00Z</time></trkpt><trkpt lat="43.70953412133176" lon="2.707202485085438"><ele>840.0</ele><time>2026-04-02T09:35:02Z</time></trkpt><trkpt lat="43.709639977458515" lon="2.7071608727811145"><ele>840.0</ele><time>2026-04-02T09:35:03Z</time></trkpt><trkpt lat="43.70954783940506" lon="2.7071416916764326"><ele>840.0</ele><time>2026-04-02T09:35:04Z</time></trkpt><trkpt lat="43.70951541300049" lon="2.7070108555584524"><ele>840.0</ele><time>2026-04-02T09:35:07Z</time></trkpt><trkpt lat="43.70949974516829" lon="2.7069117751890763"><ele>840.0</ele><time>2026-04-02T09:35:08Z</time></trkpt><trkpt lat="43.70957563692444" lon="2.7067970361103635"><ele>840.0</ele><time>2026-04-02T09:35:10Z</time></trkpt><trkpt lat="43.70964016913744" lon="2.70674092239589"><ele>840.0</ele><time>2026-04-02T09:35:12Z</time></trkpt><trkpt lat="43.70964501271694" lon="2.7066513751049004"><ele>840.0</ele><time>2026-04-02T09:35:15Z</time></trkpt><trkpt lat="43.709619453609385" lon="2.7065522086242786"><ele>840.0</ele><time>2026-04-02T09:35:19Z</time></trkpt><trkpt lat="43.70963239966609" lon="2.7064535530180036"><ele>837.6666666666667</ele><time>2026-04-02T09:35:21Z</time></trkpt><trkpt lat="43.7096460755706" lon="2.70634933563845"><ele>835.3333333333334</ele><time>2026-04-02T09:35:23Z</time></trkpt><trkpt lat="43.70957770526881" lon="2.7063538132045784"><ele>833.0</ele><time>2026-04-02T09:35:25Z</time></trkpt><trkpt lat="43.709961669125526" lon="2.7062200472299938"><ele>833.0</ele><time>2026-04-02T09:35:26Z</time></trkpt><trkpt lat="43.709999581819424" lon="2.706096208720836"><ele>833.0</ele><time>2026-04-02T09:35:28Z</time></trkpt><trkpt lat="43.71004011327307" lon="2.7059427734702655"><ele>833.0</ele><time>2026-04-02T09:35:30Z</time></trkpt><trkpt lat="43.710076256752664" lon="2.705807809466753"><ele>833.0</ele><time>2026-04-02T09:35:32Z</time></trkpt><trkpt lat="43.71008072710632" lon="2.7057066964524705"><ele>833.0</ele><time>2026-04-02T09:35:33Z</time></trkpt><trkpt lat="43.710072254114124" lon="2.7055923873694065"><ele>832.6666666666667</ele><time>2026-04-02T09:35:34Z</time></trkpt><trkpt lat="43.71004735505624" lon="2.7054784821658497"><ele>832.3333333333334</ele><time>2026-04-02T09:35:35Z</time></trkpt><trkpt lat="43.7100038849695" lon="2.705387272526504"><ele>832.0</ele><time>2026-04-02T09:35:36Z</time></trkpt><trkpt lat="43.709988123015535" lon="2.70528265457703"><ele>831.6666666666667</ele><time>2026-04-02T09:35:37Z</time></trkpt><trkpt lat="43.709964167192744" lon="2.705182475586796"><ele>831.3333333333334</ele><time>2026-04-02T09:35:38Z</time></trkpt><trkpt lat="43.709938628646974" lon="2.7050758934211"><ele>831.0</ele><time>2026-04-02T09:35:39Z</time></trkpt><trkpt lat="43.70990905448087" lon="2.7049621311702174"><ele>831.0</ele><time>2026-04-02T09:35:40Z</time></trkpt><trkpt lat="43.709879778405586" lon="2.7048610448456354"><ele>831.0</ele><time>2026-04-02T09:35:41Z</time></trkpt><trkpt lat="43.7098310203692" lon="2.7047550730189274"><ele>831.0</ele><time>2026-04-02T09:35:42Z</time></trkpt><trkpt lat="43.70976172143962" lon="2.7046480507406234"><ele>831.0</ele><time>2026-04-02T09:35:43Z</time></trkpt><trkpt lat="43.70968234758185" lon="2.7045428687354147"><ele>831.0</ele><time>2026-04-02T09:35:44Z</time></trkpt><trkpt lat="43.70958972283419" lon="2.704434002970731"><ele>829.0</ele><time>2026-04-02T09:35:45Z</time></trkpt><trkpt lat="43.70949832820591" lon="2.704317712819296"><ele>827.0</ele><time>2026-04-02T09:35:46Z</time></trkpt><trkpt lat="43.70939482593472" lon="2.704171281510692"><ele>825.0</ele><time>2026-04-02T09:35:47Z</time></trkpt><trkpt lat="43.709301894475445" lon="2.703997217307479"><ele>823.0</ele><time>2026-04-02T09:35:48Z</time></trkpt><trkpt lat="43.709195509714405" lon="2.7038508074881182"><ele>823.0</ele><time>2026-04-02T09:35:49Z</time></trkpt><trkpt lat="43.70909548264395" lon="2.7036999183769597"><ele>823.0</ele><time>2026-04-02T09:35:50Z</time></trkpt><trkpt lat="43.70898606808762" lon="2.703567096180998"><ele>823.0</ele><time>2026-04-02T09:35:51Z</time></trkpt><trkpt lat="43.70887363437978" lon="2.703438652440762"><ele>823.0</ele><time>2026-04-02T09:35:52Z</time></trkpt><trkpt lat="43.70876920894322" lon="2.7033183977060653"><ele>821.5999999999999</ele><time>2026-04-02T09:35:53Z</time></trkpt><trkpt lat="43.70867716673965" lon="2.7032083434048966"><ele>820.1999999999999</ele><time>2026-04-02T09:35:54Z</time></trkpt><trkpt lat="43.708591354618115" lon="2.703121860087536"><ele>818.8</ele><time>2026-04-02T09:35:55Z</time></trkpt><trkpt lat="43.708533528730825" lon="2.7030371485202025"><ele>817.4</ele><time>2026-04-02T09:35:56Z</time></trkpt><trkpt lat="43.70848873003968" lon="2.70296563960535"><ele>816.0</ele><time>2026-04-02T09:35:57Z</time></trkpt><trkpt lat="43.70840141161339" lon="2.7028872902547847"><ele>816.0</ele><time>2026-04-02T09:35:59Z</time></trkpt><trkpt lat="43.708312381515135" lon="2.7030169875495353"><ele>816.0</ele><time>2026-04-02T09:36:03Z</time></trkpt><trkpt lat="43.70830150854223" lon="2.7031540637711062"><ele>816.0</ele><time>2026-04-02T09:36:04Z</time></trkpt><trkpt lat="43.70828992018892" lon="2.70326978440628"><ele>816.0</ele><time>2026-04-02T09:36:05Z</time></trkpt><trkpt lat="43.70827110727138" lon="2.7033656777605506"><ele>816.0</ele><time>2026-04-02T09:36:06Z</time></trkpt><trkpt lat="43.708241685940045" lon="2.703524981103965"><ele>816.75</ele><time>2026-04-02T09:36:08Z</time></trkpt><trkpt lat="43.70823461931179" lon="2.7036337188020023"><ele>817.5</ele><time>2026-04-02T09:36:09Z</time></trkpt><trkpt lat="43.70831132013469" lon="2.703765053208266"><ele>818.25</ele><time>2026-04-02T09:36:10Z</time></trkpt><trkpt lat="43.7083354294295" lon="2.703930789295425"><ele>819.0</ele><time>2026-04-02T09:36:11Z</time></trkpt><trkpt lat="43.70837411729353" lon="2.704123698149405"><ele>819.0</ele><time>2026-04-02T09:36:12Z</time></trkpt><trkpt lat="43.7084201365386" lon="2.7043247282342016"><ele>819.0</ele><time>2026-04-02T09:36:13Z</time></trkpt><trkpt lat="43.70847066395296" lon="2.704543846246449"><ele>819.0</ele><time>2026-04-02T09:36:14Z</time></trkpt><trkpt lat="43.70853610221572" lon="2.7047563979078033"><ele>818.6666666666667</ele><time>2026-04-02T09:36:15Z</time></trkpt><trkpt lat="43.70858030075579" lon="2.704970168043117"><ele>818.3333333333334</ele><time>2026-04-02T09:36:16Z</time></trkpt><trkpt lat="43.70863100468817" lon="2.7051796888963784"><ele>818.0</ele><time>2026-04-02T09:36:17Z</time></trkpt><trkpt lat="43.708676677680096" lon="2.705383088675954"><ele>818.0</ele><time>2026-04-02T09:36:18Z</time></trkpt><trkpt lat="43.70871980626977" lon="2.7055795764607047"><ele>818.0</ele><time>2026-04-02T09:36:19Z</time></trkpt><trkpt lat="43.7087555426584" lon="2.7057585189275715"><ele>818.0</ele><time>2026-04-02T09:36:20Z</time></trkpt><trkpt lat="43.70879456076641" lon="2.705914911110553"><ele>818.0</ele><time>2026-04-02T09:36:21Z</time></trkpt><trkpt lat="43.70881854411339" lon="2.706056806333063"><ele>818.5999999999999</ele><time>2026-04-02T09:36:22Z</time></trkpt><trkpt lat="43.7088522650007" lon="2.7061824324261528"><ele>819.1999999999999</ele><time>2026-04-02T09:36:23Z</time></trkpt><trkpt lat="43.70888591533058" lon="2.7063173664090105"><ele>819.8</ele><time>2026-04-02T09:36:24Z</time></trkpt><trkpt lat="43.70886691915995" lon="2.706459276494686"><ele>820.4</ele><time>2026-04-02T09:36:25Z</time></trkpt><trkpt lat="43.70885708540802" lon="2.7065862926841353"><ele>821.0</ele><time>2026-04-02T09:36:26Z</time></trkpt><trkpt lat="43.708848457078695" lon="2.706730156389666"><ele>821.0</ele><time>2026-04-02T09:36:27Z</time></trkpt><trkpt lat="43.70884239044039" lon="2.7068844988952274"><ele>821.0</ele><time>2026-04-02T09:36:28Z</time></trkpt><trkpt lat="43.70883774783155" lon="2.707041449998563"><ele>821.0</ele><time>2026-04-02T09:36:29Z</time></trkpt><trkpt lat="43.70882877979254" lon="2.7072029693155533"><ele>821.0</ele><time>2026-04-02T09:36:30Z</time></trkpt><trkpt lat="43.70879086771162" lon="2.707349420504213"><ele>821.5</ele><time>2026-04-02T09:36:31Z</time></trkpt><trkpt lat="43.7087355474133" lon="2.707501229192525"><ele>822.0</ele><time>2026-04-02T09:36:32Z</time></trkpt><trkpt lat="43.708686070289126" lon="2.7076380158394784"><ele>822.5</ele><time>2026-04-02T09:36:33Z</time></trkpt><trkpt lat="43.7086433917138" lon="2.7077560068984763"><ele>823.0</ele><time>2026-04-02T09:36:34Z</time></trkpt><trkpt lat="43.70872542379349" lon="2.7079433497045895"><ele>824.2</ele><time>2026-04-02T09:36:35Z</time></trkpt><trkpt lat="43.70871545245157" lon="2.7080565553492724"><ele>825.4</ele><time>2026-04-02T09:36:36Z</time></trkpt><trkpt lat="43.708702593386896" lon="2.7081689933960402"><ele>826.6</ele><time>2026-04-02T09:36:37Z</time></trkpt><trkpt lat="43.7086749179031" lon="2.708296215642526"><ele>827.8000000000001</ele><time>2026-04-02T09:36:39Z</time></trkpt><trkpt lat="43.70866124644088" lon="2.7084510628004654"><ele>829.0</ele><time>2026-04-02T09:36:42Z</time></trkpt><trkpt lat="43.70864424666463" lon="2.7086236549205887"><ele>828.8000000000001</ele><time>2026-04-02T09:36:44Z</time></trkpt><trkpt lat="43.708623190036235" lon="2.708766002926044"><ele>828.6</ele><time>2026-04-02T09:36:46Z</time></trkpt><trkpt lat="43.7085983994499" lon="2.708902083484265"><ele>828.4</ele><time>2026-04-02T09:36:48Z</time></trkpt><trkpt lat="43.708582892945934" lon="2.7090198792828164"><ele>828.2</ele><time>2026-04-02T09:36:50Z</time></trkpt><trkpt lat="43.70856274609054" lon="2.7091380510562457"><ele>828.0</ele><time>2026-04-02T09:36:52Z</time></trkpt><trkpt lat="43.70854982365092" lon="2.7092456175099198"><ele>828.0000000000001</ele><time>2026-04-02T09:36:54Z</time></trkpt><trkpt lat="43.70853079607968" lon="2.7093334637065807"><ele>828.0</ele><time>2026-04-02T09:36:56Z</time></trkpt><trkpt lat="43.70848229469658" lon="2.709415943190333"><ele>828.0</ele><time>2026-04-02T09:36:59Z</time></trkpt><trkpt lat="43.70844183279188" lon="2.709483548016726"><ele>828.0</ele><time>2026-04-02T09:37:03Z</time></trkpt><trkpt lat="43.70849419404673" lon="2.709537557770521"><ele>828.0</ele><time>2026-04-02T09:37:06Z</time></trkpt><trkpt lat="43.708523425201825" lon="2.7094350487408008"><ele>828.0000000000001</ele><time>2026-04-02T09:37:09Z</time></trkpt><trkpt lat="43.708539290258955" lon="2.7093276504744033"><ele>828.0</ele><time>2026-04-02T09:37:47Z</time></trkpt><trkpt lat="43.708563000683576" lon="2.7091357025440694"><ele>828.2</ele><time>2026-04-02T09:37:49Z</time></trkpt><trkpt lat="43.7085817255968" lon="2.7089803229542717"><ele>828.4</ele><time>2026-04-02T09:37:50Z</time></trkpt><trkpt lat="43.70860870970344" lon="2.7088285468293396"><ele>828.6</ele><time>2026-04-02T09:37:51Z</time></trkpt><trkpt lat="43.70863505625629" lon="2.708709619108978"><ele>828.8000000000001</ele><time>2026-04-02T09:37:52Z</time></trkpt><trkpt lat="43.70865901569379" lon="2.708562656538185"><ele>829.0</ele><time>2026-04-02T09:37:53Z</time></trkpt><trkpt lat="43.708669801426865" lon="2.708432868846071"><ele>829.0</ele><time>2026-04-02T09:37:54Z</time></trkpt><trkpt lat="43.708674539579604" lon="2.7083200188469907"><ele>829.0</ele><time>2026-04-02T09:37:55Z</time></trkpt><trkpt lat="43.70868169522277" lon="2.7082157752868534"><ele>829.0</ele><time>2026-04-02T09:37:56Z</time></trkpt><trkpt lat="43.708698939959724" lon="2.708105281558505"><ele>829.0</ele><time>2026-04-02T09:37:57Z</time></trkpt><trkpt lat="43.70872966324291" lon="2.7079550223197963"><ele>829.0</ele><time>2026-04-02T09:37:58Z</time></trkpt><trkpt lat="43.70876402895385" lon="2.707777084042027"><ele>827.5</ele><time>2026-04-02T09:37:59Z</time></trkpt><trkpt lat="43.70879671984057" lon="2.7076058729445935"><ele>826.0</ele><time>2026-04-02T09:38:00Z</time></trkpt><trkpt lat="43.7088304345629" lon="2.7074375119656198"><ele>824.5</ele><time>2026-04-02T09:38:01Z</time></trkpt><trkpt lat="43.70886080982026" lon="2.7072674776457144"><ele>823.0</ele><time>2026-04-02T09:38:02Z</time></trkpt><trkpt lat="43.70888259183769" lon="2.7071051369591546"><ele>823.0</ele><time>2026-04-02T09:38:03Z</time></trkpt><trkpt lat="43.70887382604039" lon="2.7069471910649288"><ele>823.0</ele><time>2026-04-02T09:38:04Z</time></trkpt><trkpt lat="43.708870328834536" lon="2.7067952786458758"><ele>823.0</ele><time>2026-04-02T09:38:05Z</time></trkpt><trkpt lat="43.708871754210534" lon="2.7066519162937075"><ele>823.0</ele><time>2026-04-02T09:38:06Z</time></trkpt><trkpt lat="43.70887812203678" lon="2.70651776076632"><ele>823.0</ele><time>2026-04-02T09:38:07Z</time></trkpt><trkpt lat="43.70888511655982" lon="2.7063759083097327"><ele>822.5</ele><time>2026-04-02T09:38:08Z</time></trkpt><trkpt lat="43.708880911368155" lon="2.706217929537696"><ele>822.0</ele><time>2026-04-02T09:38:09Z</time></trkpt><trkpt lat="43.70888490573399" lon="2.706045077589093"><ele>821.5</ele><time>2026-04-02T09:38:10Z</time></trkpt><trkpt lat="43.70881820212085" lon="2.7058652766301328"><ele>821.0</ele><time>2026-04-02T09:38:11Z</time></trkpt><trkpt lat="43.7087785391793" lon="2.7056814106255747"><ele>820.25</ele><time>2026-04-02T09:38:12Z</time></trkpt><trkpt lat="43.70872446027804" lon="2.7054922530413807"><ele>819.5</ele><time>2026-04-02T09:38:13Z</time></trkpt><trkpt lat="43.70868301446139" lon="2.7052949394806576"><ele>818.75</ele><time>2026-04-02T09:38:14Z</time></trkpt><trkpt lat="43.70864196892237" lon="2.705094003097023"><ele>818.0</ele><time>2026-04-02T09:38:15Z</time></trkpt><trkpt lat="43.70859909783968" lon="2.7049007994459364"><ele>818.25</ele><time>2026-04-02T09:38:16Z</time></trkpt><trkpt lat="43.70855848657695" lon="2.704724197897937"><ele>818.5</ele><time>2026-04-02T09:38:17Z</time></trkpt><trkpt lat="43.708520366934096" lon="2.7045548879182566"><ele>818.75</ele><time>2026-04-02T09:38:18Z</time></trkpt><trkpt lat="43.70848538132879" lon="2.7043983675670913"><ele>819.0</ele><time>2026-04-02T09:38:19Z</time></trkpt><trkpt lat="43.708452799297284" lon="2.7042490093046654"><ele>819.0</ele><time>2026-04-02T09:38:20Z</time></trkpt><trkpt lat="43.708419838785936" lon="2.7041093116259867"><ele>819.0</ele><time>2026-04-02T09:38:21Z</time></trkpt><trkpt lat="43.708386943799134" lon="2.7039782136648784"><ele>819.0</ele><time>2026-04-02T09:38:22Z</time></trkpt><trkpt lat="43.70835853101553" lon="2.703852852414997"><ele>819.0</ele><time>2026-04-02T09:38:23Z</time></trkpt><trkpt lat="43.70832882450633" lon="2.703738509510861"><ele>819.0</ele><time>2026-04-02T09:38:24Z</time></trkpt><trkpt lat="43.708296575256114" lon="2.7036329605675213"><ele>818.5</ele><time>2026-04-02T09:38:25Z</time></trkpt><trkpt lat="43.70827844282849" lon="2.7035409825582675"><ele>818.0</ele><time>2026-04-02T09:38:26Z</time></trkpt><trkpt lat="43.708292576016134" lon="2.703424265690404"><ele>817.5</ele><time>2026-04-02T09:38:31Z</time></trkpt><trkpt lat="43.708315016116934" lon="2.70330256865945"><ele>817.0</ele><time>2026-04-02T09:38:32Z</time></trkpt><trkpt lat="43.70833527474557" lon="2.703185383129366"><ele>816.5</ele><time>2026-04-02T09:38:33Z</time></trkpt><trkpt lat="43.708362138615065" lon="2.703033716371945"><ele>816.0</ele><time>2026-04-02T09:38:34Z</time></trkpt><trkpt lat="43.708374977583745" lon="2.7028746867054743"><ele>816.5</ele><time>2026-04-02T09:38:35Z</time></trkpt><trkpt lat="43.70834148102317" lon="2.702714311985855"><ele>817.0</ele><time>2026-04-02T09:38:36Z</time></trkpt><trkpt lat="43.708313815317744" lon="2.7025397299068845"><ele>817.5</ele><time>2026-04-02T09:38:37Z</time></trkpt><trkpt lat="43.70829616836451" lon="2.7023578669736934"><ele>818.0</ele><time>2026-04-02T09:38:38Z</time></trkpt><trkpt lat="43.70827041015149" lon="2.702175757137984"><ele>818.0</ele><time>2026-04-02T09:38:39Z</time></trkpt><trkpt lat="43.708233660098365" lon="2.7019953791387543"><ele>818.0</ele><time>2026-04-02T09:38:40Z</time></trkpt><trkpt lat="43.708198699639844" lon="2.701816185506477"><ele>818.0</ele><time>2026-04-02T09:38:41Z</time></trkpt><trkpt lat="43.70817396861626" lon="2.7016539424913977"><ele>818.0</ele><time>2026-04-02T09:38:42Z</time></trkpt><trkpt lat="43.70814715072696" lon="2.701500269762893"><ele>817.4</ele><time>2026-04-02T09:38:43Z</time></trkpt><trkpt lat="43.708142103848395" lon="2.701349365057813"><ele>816.8</ele><time>2026-04-02T09:38:44Z</time></trkpt><trkpt lat="43.70812035950371" lon="2.701218718967"><ele>816.2</ele><time>2026-04-02T09:38:45Z</time></trkpt><trkpt lat="43.70810968921039" lon="2.701101896347597"><ele>815.6</ele><time>2026-04-02T09:38:46Z</time></trkpt><trkpt lat="43.70812007510286" lon="2.701010385965289"><ele>815.0</ele><time>2026-04-02T09:38:47Z</time></trkpt><trkpt lat="43.70809583597508" lon="2.700879021700256"><ele>814.2</ele><time>2026-04-02T09:38:49Z</time></trkpt><trkpt lat="43.70808622244755" lon="2.700781557731775"><ele>813.4</ele><time>2026-04-02T09:39:18Z</time></trkpt><trkpt lat="43.70821534951776" lon="2.7007014710677537"><ele>812.5999999999999</ele><time>2026-04-02T09:39:19Z</time></trkpt><trkpt lat="43.708283595565725" lon="2.7006274744583707"><ele>811.8</ele><time>2026-04-02T09:39:20Z</time></trkpt><trkpt lat="43.708367542849544" lon="2.7005115162297066"><ele>811.0</ele><time>2026-04-02T09:39:21Z</time></trkpt><trkpt lat="43.708441004401685" lon="2.7003660517549424"><ele>810.5</ele><time>2026-04-02T09:39:22Z</time></trkpt><trkpt lat="43.7085037046917" lon="2.7001978414322108"><ele>810.0</ele><time>2026-04-02T09:39:23Z</time></trkpt><trkpt lat="43.70856550718172" lon="2.700012144038529"><ele>809.5</ele><time>2026-04-02T09:39:24Z</time></trkpt><trkpt lat="43.70863646525833" lon="2.6998121393875305"><ele>809.0</ele><time>2026-04-02T09:39:25Z</time></trkpt><trkpt lat="43.70871210351496" lon="2.699623793535908"><ele>810.75</ele><time>2026-04-02T09:39:26Z</time></trkpt><trkpt lat="43.70879586292098" lon="2.6994521006043177"><ele>812.5</ele><time>2026-04-02T09:39:27Z</time></trkpt><trkpt lat="43.708900143220504" lon="2.6993102360644206"><ele>814.25</ele><time>2026-04-02T09:39:28Z</time></trkpt><trkpt lat="43.70900714546111" lon="2.699178548302521"><ele>816.0</ele><time>2026-04-02T09:39:29Z</time></trkpt><trkpt lat="43.70912930272164" lon="2.6990732169460934"><ele>816.0</ele><time>2026-04-02T09:39:30Z</time></trkpt><trkpt lat="43.709249370607715" lon="2.6989702413374728"><ele>816.0</ele><time>2026-04-02T09:39:31Z</time></trkpt><trkpt lat="43.709394867823065" lon="2.698949094558394"><ele>816.0</ele><time>2026-04-02T09:39:32Z</time></trkpt><trkpt lat="43.70953701216609" lon="2.6989008208657492"><ele>816.0</ele><time>2026-04-02T09:39:33Z</time></trkpt><trkpt lat="43.7096782218863" lon="2.698896325413441"><ele>818.6666666666667</ele><time>2026-04-02T09:39:34Z</time></trkpt><trkpt lat="43.70982310477216" lon="2.6988960109829505"><ele>821.3333333333334</ele><time>2026-04-02T09:39:35Z</time></trkpt><trkpt lat="43.70998183082854" lon="2.698895054741112"><ele>824.0</ele><time>2026-04-02T09:39:36Z</time></trkpt><trkpt lat="43.71014221841146" lon="2.698903583337062"><ele>824.6666666666667</ele><time>2026-04-02T09:39:37Z</time></trkpt><trkpt lat="43.71030645644956" lon="2.6989179812762467"><ele>825.3333333333333</ele><time>2026-04-02T09:39:38Z</time></trkpt><trkpt lat="43.71046830631386" lon="2.698954610807696"><ele>826.0</ele><time>2026-04-02T09:39:39Z</time></trkpt><trkpt lat="43.710633812093036" lon="2.6990147068092094"><ele>826.0</ele><time>2026-04-02T09:39:40Z</time></trkpt><trkpt lat="43.71079920669208" lon="2.699092835423414"><ele>826.0</ele><time>2026-04-02T09:39:41Z</time></trkpt><trkpt lat="43.710955309938754" lon="2.699190475583863"><ele>826.0</ele><time>2026-04-02T09:39:42Z</time></trkpt><trkpt lat="43.71110350526662" lon="2.699301094359716"><ele>826.3333333333333</ele><time>2026-04-02T09:39:43Z</time></trkpt><trkpt lat="43.711211445414584" lon="2.6994514020580733"><ele>826.6666666666667</ele><time>2026-04-02T09:39:44Z</time></trkpt><trkpt lat="43.71127899446474" lon="2.699633810900424"><ele>827.0</ele><time>2026-04-02T09:39:45Z</time></trkpt><trkpt lat="43.71135850515624" lon="2.699845126482973"><ele>827.0</ele><time>2026-04-02T09:39:46Z</time></trkpt><trkpt lat="43.711420137064486" lon="2.7000878824362737"><ele>827.0</ele><time>2026-04-02T09:39:47Z</time></trkpt><trkpt lat="43.71150348322608" lon="2.700328462183806"><ele>827.0</ele><time>2026-04-02T09:39:48Z</time></trkpt><trkpt lat="43.711588869432724" lon="2.7005797067438504"><ele>829.6666666666667</ele><time>2026-04-02T09:39:49Z</time></trkpt><trkpt lat="43.711667718915784" lon="2.7008286272087885"><ele>832.3333333333333</ele><time>2026-04-02T09:39:50Z</time></trkpt><trkpt lat="43.71173600829395" lon="2.7010931428014064"><ele>835.0</ele><time>2026-04-02T09:39:51Z</time></trkpt><trkpt lat="43.711793370184154" lon="2.701377661719688"><ele>838.0</ele><time>2026-04-02T09:39:52Z</time></trkpt><trkpt lat="43.7118429703498" lon="2.701683668687712"><ele>841.0</ele><time>2026-04-02T09:39:53Z</time></trkpt><trkpt lat="43.71188182018638" lon="2.7019676470733387"><ele>844.0</ele><time>2026-04-02T09:39:54Z</time></trkpt><trkpt lat="43.71190177815302" lon="2.7022387710524285"><ele>845.0</ele><time>2026-04-02T09:39:55Z</time></trkpt><trkpt lat="43.71189703471984" lon="2.7025059753296174"><ele>846.0</ele><time>2026-04-02T09:39:56Z</time></trkpt><trkpt lat="43.71188977190121" lon="2.7027956920511405"><ele>847.0</ele><time>2026-04-02T09:39:57Z</time></trkpt><trkpt lat="43.71188816903731" lon="2.703088392101424"><ele>848.0</ele><time>2026-04-02T09:39:58Z</time></trkpt><trkpt lat="43.711892595402986" lon="2.7033683104287625"><ele>849.0</ele><time>2026-04-02T09:39:59Z</time></trkpt><trkpt lat="43.71189796943804" lon="2.7036502385081396"><ele>850.0</ele><time>2026-04-02T09:40:00Z</time></trkpt><trkpt lat="43.71189498072438" lon="2.703931266603077"><ele>851.6666666666666</ele><time>2026-04-02T09:40:01Z</time></trkpt><trkpt lat="43.71188589073801" lon="2.704218727971297"><ele>853.3333333333333</ele><time>2026-04-02T09:40:02Z</time></trkpt><trkpt lat="43.71188349093646" lon="2.70449317909288"><ele>855.0</ele><time>2026-04-02T09:40:03Z</time></trkpt><trkpt lat="43.71186395961972" lon="2.704764060395083"><ele>856.3333333333333</ele><time>2026-04-02T09:40:04Z</time></trkpt><trkpt lat="43.71185784159011" lon="2.7050355284928007"><ele>857.6666666666666</ele><time>2026-04-02T09:40:05Z</time></trkpt><trkpt lat="43.71186463246861" lon="2.7053008869416573"><ele>859.0</ele><time>2026-04-02T09:40:06Z</time></trkpt><trkpt lat="43.711827893918105" lon="2.7055557321688726"><ele>859.6666666666666</ele><time>2026-04-02T09:40:07Z</time></trkpt><trkpt lat="43.71181419161973" lon="2.7058093395655307"><ele>860.3333333333333</ele><time>2026-04-02T09:40:08Z</time></trkpt><trkpt lat="43.71177640090114" lon="2.7060596254328897"><ele>861.0</ele><time>2026-04-02T09:40:09Z</time></trkpt><trkpt lat="43.711739575119864" lon="2.7063178808444572"><ele>862.6666666666667</ele><time>2026-04-02T09:40:10Z</time></trkpt><trkpt lat="43.71170441841912" lon="2.7065778598970986"><ele>864.3333333333334</ele><time>2026-04-02T09:40:11Z</time></trkpt><trkpt lat="43.71166884756665" lon="2.7068327221317685"><ele>866.0</ele><time>2026-04-02T09:40:12Z</time></trkpt><trkpt lat="43.71163390827546" lon="2.7070793975248035"><ele>868.0</ele><time>2026-04-02T09:40:13Z</time></trkpt><trkpt lat="43.711601290455114" lon="2.7073285491759433"><ele>870.0</ele><time>2026-04-02T09:40:14Z</time></trkpt><trkpt lat="43.71157849044233" lon="2.7075754143629087"><ele>872.0</ele><time>2026-04-02T09:40:15Z</time></trkpt><trkpt lat="43.71156473722374" lon="2.707821639137716"><ele>873.6666666666667</ele><time>2026-04-02T09:40:16Z</time></trkpt><trkpt lat="43.71155159440554" lon="2.7080616784681966"><ele>875.3333333333333</ele><time>2026-04-02T09:40:17Z</time></trkpt><trkpt lat="43.71154129804596" lon="2.7083047961864266"><ele>877.0</ele><time>2026-04-02T09:40:18Z</time></trkpt><trkpt lat="43.71153480686075" lon="2.7085419702465154"><ele>878.3333333333333</ele><time>2026-04-02T09:40:19Z</time></trkpt><trkpt lat="43.71153418883611" lon="2.7087811540695195"><ele>879.6666666666667</ele><time>2026-04-02T09:40:20Z</time></trkpt><trkpt lat="43.711535675127124" lon="2.7090160880269676"><ele>881.0</ele><time>2026-04-02T09:40:21Z</time></trkpt><trkpt lat="43.711544107108224" lon="2.7092501293781677"><ele>881.3333333333334</ele><time>2026-04-02T09:40:22Z</time></trkpt><trkpt lat="43.7115727328352" lon="2.7095038077772045"><ele>881.6666666666667</ele><time>2026-04-02T09:40:23Z</time></trkpt><trkpt lat="43.71164692512942" lon="2.7097650285879413"><ele>882.0</ele><time>2026-04-02T09:40:24Z</time></trkpt><trkpt lat="43.71174998282638" lon="2.7100186562178523"><ele>880.6666666666667</ele><time>2026-04-02T09:40:25Z</time></trkpt><trkpt lat="43.71185320948062" lon="2.7102544782157434"><ele>879.3333333333334</ele><time>2026-04-02T09:40:26Z</time></trkpt><trkpt lat="43.711951089206266" lon="2.7104964856912916"><ele>878.0</ele><time>2026-04-02T09:40:27Z</time></trkpt><trkpt lat="43.71203421667803" lon="2.7107509404256205"><ele>885.0</ele><time>2026-04-02T09:40:28Z</time></trkpt><trkpt lat="43.71211175235528" lon="2.7110344715867885"><ele>892.0</ele><time>2026-04-02T09:40:29Z</time></trkpt><trkpt lat="43.71218366281094" lon="2.7113449891891412"><ele>892.5</ele><time>2026-04-02T09:40:30Z</time></trkpt><trkpt lat="43.71221128507598" lon="2.7116753674453116"><ele>893.0</ele><time>2026-04-02T09:40:31Z</time></trkpt><trkpt lat="43.71223979857029" lon="2.7120111106970333"><ele>894.0</ele><time>2026-04-02T09:40:32Z</time></trkpt><trkpt lat="43.7122517368013" lon="2.712350150234351"><ele>895.0</ele><time>2026-04-02T09:40:33Z</time></trkpt><trkpt lat="43.712271227440034" lon="2.712699064298654"><ele>896.0</ele><time>2026-04-02T09:40:34Z</time></trkpt><trkpt lat="43.712267818568165" lon="2.713038328551997"><ele>897.0</ele><time>2026-04-02T09:40:35Z</time></trkpt><trkpt lat="43.71226216120615" lon="2.713381097458123"><ele>898.0</ele><time>2026-04-02T09:40:36Z</time></trkpt><trkpt lat="43.71225196095376" lon="2.7137326624687725"><ele>899.0</ele><time>2026-04-02T09:40:37Z</time></trkpt><trkpt lat="43.71222616822339" lon="2.7140972394669776"><ele>899.5</ele><time>2026-04-02T09:40:38Z</time></trkpt><trkpt lat="43.712177470808" lon="2.714456505079941"><ele>900.0</ele><time>2026-04-02T09:40:39Z</time></trkpt><trkpt lat="43.712136738825805" lon="2.71479916744227"><ele>900.0</ele><time>2026-04-02T09:40:40Z</time></trkpt><trkpt lat="43.712098346378234" lon="2.715159528047909"><ele>900.0</ele><time>2026-04-02T09:40:41Z</time></trkpt><trkpt lat="43.7120616484419" lon="2.7155094350808056"><ele>900.0</ele><time>2026-04-02T09:40:42Z</time></trkpt><trkpt lat="43.71201950263499" lon="2.715851902084836"><ele>900.0</ele><time>2026-04-02T09:40:43Z</time></trkpt><trkpt lat="43.712016372419484" lon="2.7161788974447676"><ele>900.0</ele><time>2026-04-02T09:40:44Z</time></trkpt><trkpt lat="43.71200045722474" lon="2.7165035792215075"><ele>900.0</ele><time>2026-04-02T09:40:45Z</time></trkpt><trkpt lat="43.71198447900689" lon="2.7168279281373704"><ele>899.5</ele><time>2026-04-02T09:40:46Z</time></trkpt><trkpt lat="43.711969816169834" lon="2.717163040916669"><ele>899.0</ele><time>2026-04-02T09:40:47Z</time></trkpt><trkpt lat="43.71195372155299" lon="2.7174818835069625"><ele>898.6666666666667</ele><time>2026-04-02T09:40:48Z</time></trkpt><trkpt lat="43.71191763228378" lon="2.7177703082164055"><ele>898.3333333333333</ele><time>2026-04-02T09:40:49Z</time></trkpt><trkpt lat="43.7118963438481" lon="2.7180359220180668"><ele>898.0</ele><time>2026-04-02T09:40:50Z</time></trkpt><trkpt lat="43.7118879051193" lon="2.7182824329426953"><ele>898.25</ele><time>2026-04-02T09:40:51Z</time></trkpt><trkpt lat="43.71187264858724" lon="2.7185068009808595"><ele>898.5</ele><time>2026-04-02T09:40:52Z</time></trkpt><trkpt lat="43.71186319852368" lon="2.718695542405104"><ele>898.75</ele><time>2026-04-02T09:40:53Z</time></trkpt><trkpt lat="43.71185645366221" lon="2.7188316163839312"><ele>899.0</ele><time>2026-04-02T09:40:54Z</time></trkpt><trkpt lat="43.71184938765542" lon="2.7190001781165822"><ele>899.0</ele><time>2026-04-02T09:40:56Z</time></trkpt><trkpt lat="43.711872305365695" lon="2.7191570020696387"><ele>899.0000000000001</ele><time>2026-04-02T09:40:58Z</time></trkpt><trkpt lat="43.71190640049874" lon="2.7192541403355017"><ele>899.0000000000001</ele><time>2026-04-02T09:40:59Z</time></trkpt><trkpt lat="43.71193331880354" lon="2.7193773970113724"><ele>899.0</ele><time>2026-04-02T09:41:00Z</time></trkpt><trkpt lat="43.71198598908073" lon="2.7195354947271007"><ele>899.0</ele><time>2026-04-02T09:41:01Z</time></trkpt><trkpt lat="43.71220022452766" lon="2.7196173703394204"><ele>897.3333333333334</ele><time>2026-04-02T09:41:02Z</time></trkpt><trkpt lat="43.71232972939298" lon="2.7197752697573874"><ele>895.6666666666667</ele><time>2026-04-02T09:41:03Z</time></trkpt><trkpt lat="43.71248033849078" lon="2.7199600729237514"><ele>894.0</ele><time>2026-04-02T09:41:04Z</time></trkpt><trkpt lat="43.71264440112834" lon="2.7201587842985484"><ele>892.0</ele><time>2026-04-02T09:41:05Z</time></trkpt><trkpt lat="43.71280323133076" lon="2.7203818904458243"><ele>890.0</ele><time>2026-04-02T09:41:06Z</time></trkpt><trkpt lat="43.71297010091537" lon="2.720586853790076"><ele>888.0</ele><time>2026-04-02T09:41:07Z</time></trkpt><trkpt lat="43.71313527360301" lon="2.7207957728746264"><ele>888.0</ele><time>2026-04-02T09:41:08Z</time></trkpt><trkpt lat="43.71329259107825" lon="2.7210106286236617"><ele>888.0</ele><time>2026-04-02T09:41:09Z</time></trkpt><trkpt lat="43.71341044749419" lon="2.7212516882817943"><ele>888.0</ele><time>2026-04-02T09:41:10Z</time></trkpt><trkpt lat="43.713525574308704" lon="2.721484675880292"><ele>887.6666666666667</ele><time>2026-04-02T09:41:11Z</time></trkpt><trkpt lat="43.71365422247667" lon="2.7216677752852543"><ele>887.3333333333334</ele><time>2026-04-02T09:41:12Z</time></trkpt><trkpt lat="43.71376178239071" lon="2.721829692092458"><ele>887.0</ele><time>2026-04-02T09:41:13Z</time></trkpt><trkpt lat="43.71387492376668" lon="2.7219677876857653"><ele>884.3333333333334</ele><time>2026-04-02T09:41:14Z</time></trkpt><trkpt lat="43.714012499356514" lon="2.7220486185557795"><ele>881.6666666666667</ele><time>2026-04-02T09:41:15Z</time></trkpt><trkpt lat="43.714187006960586" lon="2.722099673307136"><ele>879.0</ele><time>2026-04-02T09:41:16Z</time></trkpt><trkpt lat="43.71438586984046" lon="2.7221280111161357"><ele>879.0</ele><time>2026-04-02T09:41:17Z</time></trkpt><trkpt lat="43.71461159403478" lon="2.7221491719858717"><ele>879.0</ele><time>2026-04-02T09:41:18Z</time></trkpt><trkpt lat="43.71484555831932" lon="2.7221918572088875"><ele>879.0</ele><time>2026-04-02T09:41:19Z</time></trkpt><trkpt lat="43.715078832244544" lon="2.7223011091389124"><ele>879.0</ele><time>2026-04-02T09:41:20Z</time></trkpt><trkpt lat="43.71531545100388" lon="2.7224029474724722"><ele>881.0</ele><time>2026-04-02T09:41:21Z</time></trkpt><trkpt lat="43.71556226559673" lon="2.7224926292520415"><ele>883.0</ele><time>2026-04-02T09:41:22Z</time></trkpt><trkpt lat="43.71579422837376" lon="2.7225934316615654"><ele>883.0</ele><time>2026-04-02T09:41:23Z</time></trkpt><trkpt lat="43.71602608604472" lon="2.7226853576849734"><ele>883.0</ele><time>2026-04-02T09:41:24Z</time></trkpt><trkpt lat="43.7162274322032" lon="2.7228415349237642"><ele>883.6666666666666</ele><time>2026-04-02T09:41:25Z</time></trkpt><trkpt lat="43.716422389866985" lon="2.7229934211178164"><ele>884.3333333333333</ele><time>2026-04-02T09:41:26Z</time></trkpt><trkpt lat="43.71659579439596" lon="2.7231468684900713"><ele>885.0</ele><time>2026-04-02T09:41:27Z</time></trkpt><trkpt lat="43.716772257252" lon="2.7232757288193734"><ele>885.0</ele><time>2026-04-02T09:41:28Z</time></trkpt><trkpt lat="43.71692986726179" lon="2.7234181964614295"><ele>885.0</ele><time>2026-04-02T09:41:29Z</time></trkpt><trkpt lat="43.71710338461411" lon="2.723510098909893"><ele>885.0</ele><time>2026-04-02T09:41:30Z</time></trkpt><trkpt lat="43.71725439498672" lon="2.7236110748974363"><ele>883.3333333333333</ele><time>2026-04-02T09:41:31Z</time></trkpt><trkpt lat="43.71739471989678" lon="2.723686461228673"><ele>881.6666666666666</ele><time>2026-04-02T09:41:32Z</time></trkpt><trkpt lat="43.717554321316825" lon="2.723726036248762"><ele>880.0</ele><time>2026-04-02T09:41:33Z</time></trkpt><trkpt lat="43.71775433494846" lon="2.7237234531301806"><ele>880.0</ele><time>2026-04-02T09:41:34Z</time></trkpt><trkpt lat="43.71794823228068" lon="2.7237426393433415"><ele>880.0</ele><time>2026-04-02T09:41:35Z</time></trkpt><trkpt lat="43.718111269990075" lon="2.723804410396337"><ele>880.0</ele><time>2026-04-02T09:41:36Z</time></trkpt><trkpt lat="43.71824395829634" lon="2.723896679492483"><ele>880.0</ele><time>2026-04-02T09:41:37Z</time></trkpt><trkpt lat="43.718329946125216" lon="2.7240098601282456"><ele>880.0</ele><time>2026-04-02T09:41:38Z</time></trkpt><trkpt lat="43.718383474356024" lon="2.7241545889697205"><ele>880.0</ele><time>2026-04-02T09:41:39Z</time></trkpt><trkpt lat="43.71840436307116" lon="2.7243266297497923"><ele>880.0</ele><time>2026-04-02T09:41:40Z</time></trkpt><trkpt lat="43.718422892329436" lon="2.72455991649858"><ele>880.0</ele><time>2026-04-02T09:41:41Z</time></trkpt><trkpt lat="43.718414977062096" lon="2.724825751104129"><ele>880.0</ele><time>2026-04-02T09:41:42Z</time></trkpt><trkpt lat="43.71839940165369" lon="2.725125514473829"><ele>880.0</ele><time>2026-04-02T09:41:43Z</time></trkpt><trkpt lat="43.71839245164149" lon="2.7254172611172294"><ele>880.6666666666666</ele><time>2026-04-02T09:41:44Z</time></trkpt><trkpt lat="43.718398192379844" lon="2.7256906685863185"><ele>881.3333333333333</ele><time>2026-04-02T09:41:45Z</time></trkpt><trkpt lat="43.71842210693173" lon="2.7259575661415747"><ele>882.0</ele><time>2026-04-02T09:41:46Z</time></trkpt><trkpt lat="43.718433971042955" lon="2.7262244187461753"><ele>883.0</ele><time>2026-04-02T09:41:47Z</time></trkpt><trkpt lat="43.71845572593695" lon="2.726495308328348"><ele>884.0</ele><time>2026-04-02T09:41:48Z</time></trkpt><trkpt lat="43.71849822383511" lon="2.726760807397294"><ele>885.0</ele><time>2026-04-02T09:41:49Z</time></trkpt><trkpt lat="43.71854921386821" lon="2.727010454629286"><ele>888.0</ele><time>2026-04-02T09:41:50Z</time></trkpt><trkpt lat="43.71858295876158" lon="2.7272604946019636"><ele>891.0</ele><time>2026-04-02T09:41:51Z</time></trkpt><trkpt lat="43.71866399041403" lon="2.727501125617646"><ele>894.0</ele><time>2026-04-02T09:41:52Z</time></trkpt><trkpt lat="43.718748700482415" lon="2.7277549562874293"><ele>895.0</ele><time>2026-04-02T09:41:53Z</time></trkpt><trkpt lat="43.71885074262883" lon="2.7280163676633844"><ele>896.0</ele><time>2026-04-02T09:41:54Z</time></trkpt><trkpt lat="43.71894754622862" lon="2.7282767096424227"><ele>897.0</ele><time>2026-04-02T09:41:55Z</time></trkpt><trkpt lat="43.71904241953261" lon="2.7285199650659298"><ele>897.3333333333333</ele><time>2026-04-02T09:41:56Z</time></trkpt><trkpt lat="43.71914265581075" lon="2.728765892493794"><ele>897.6666666666666</ele><time>2026-04-02T09:41:57Z</time></trkpt><trkpt lat="43.71924022554128" lon="2.729000854128634"><ele>898.0</ele><time>2026-04-02T09:41:58Z</time></trkpt><trkpt lat="43.71932907182851" lon="2.729206324212962"><ele>897.3333333333333</ele><time>2026-04-02T09:41:59Z</time></trkpt><trkpt lat="43.71941465791908" lon="2.729369868860971"><ele>896.6666666666667</ele><time>2026-04-02T09:42:00Z</time></trkpt><trkpt lat="43.719510494421364" lon="2.7295501942849563"><ele>896.0</ele><time>2026-04-02T09:42:01Z</time></trkpt><trkpt lat="43.71964187615972" lon="2.7297177069158263"><ele>895.0</ele><time>2026-04-02T09:42:02Z</time></trkpt><trkpt lat="43.71974143524907" lon="2.729920919276327"><ele>894.0</ele><time>2026-04-02T09:42:03Z</time></trkpt><trkpt lat="43.719848239254404" lon="2.730140570332009"><ele>893.0</ele><time>2026-04-02T09:42:04Z</time></trkpt><trkpt lat="43.719968443203776" lon="2.7303554021707286"><ele>892.0</ele><time>2026-04-02T09:42:05Z</time></trkpt><trkpt lat="43.720087268063736" lon="2.7305966508866777"><ele>891.0</ele><time>2026-04-02T09:42:06Z</time></trkpt><trkpt lat="43.720225052414015" lon="2.7308274715059455"><ele>890.0</ele><time>2026-04-02T09:42:07Z</time></trkpt><trkpt lat="43.72037401076391" lon="2.7310656481955866"><ele>886.0</ele><time>2026-04-02T09:42:08Z</time></trkpt><trkpt lat="43.72052136108945" lon="2.731317834676305"><ele>882.0</ele><time>2026-04-02T09:42:09Z</time></trkpt><trkpt lat="43.72070174276261" lon="2.7315349647783673"><ele>882.0</ele><time>2026-04-02T09:42:10Z</time></trkpt><trkpt lat="43.720863607535286" lon="2.731758928364248"><ele>882.0</ele><time>2026-04-02T09:42:11Z</time></trkpt><trkpt lat="43.72101878950057" lon="2.7319767530082233"><ele>880.3333333333333</ele><time>2026-04-02T09:42:12Z</time></trkpt><trkpt lat="43.72114889708389" lon="2.7321967115140056"><ele>878.6666666666666</ele><time>2026-04-02T09:42:13Z</time></trkpt><trkpt lat="43.72130364591164" lon="2.7323750098355357"><ele>877.0</ele><time>2026-04-02T09:42:14Z</time></trkpt><trkpt lat="43.721436652460504" lon="2.732555178946692"><ele>877.0</ele><time>2026-04-02T09:42:15Z</time></trkpt><trkpt lat="43.72155077083496" lon="2.7327237247205085"><ele>877.0</ele><time>2026-04-02T09:42:16Z</time></trkpt><trkpt lat="43.7216266199651" lon="2.732894299840371"><ele>877.0</ele><time>2026-04-02T09:42:17Z</time></trkpt><trkpt lat="43.72167885221068" lon="2.7330370844650846"><ele>877.0</ele><time>2026-04-02T09:42:18Z</time></trkpt><trkpt lat="43.72166691349784" lon="2.733194504469347"><ele>877.0</ele><time>2026-04-02T09:42:19Z</time></trkpt><trkpt lat="43.72163513707651" lon="2.7333898943722366"><ele>877.0</ele><time>2026-04-02T09:42:20Z</time></trkpt><trkpt lat="43.72159247186784" lon="2.7336130622785917"><ele>877.0</ele><time>2026-04-02T09:42:21Z</time></trkpt><trkpt lat="43.72155695313446" lon="2.73383732459817"><ele>878.0</ele><time>2026-04-02T09:42:22Z</time></trkpt><trkpt lat="43.721534672995574" lon="2.7340041009410667"><ele>879.0</ele><time>2026-04-02T09:42:23Z</time></trkpt><trkpt lat="43.72152226043617" lon="2.7341634207857703"><ele>880.0</ele><time>2026-04-02T09:42:24Z</time></trkpt><trkpt lat="43.721539993250815" lon="2.7343501887793877"><ele>881.0</ele><time>2026-04-02T09:42:25Z</time></trkpt><trkpt lat="43.721607215558244" lon="2.734551554743705"><ele>882.0</ele><time>2026-04-02T09:42:26Z</time></trkpt><trkpt lat="43.72171634445695" lon="2.734755012062355"><ele>883.0</ele><time>2026-04-02T09:42:27Z</time></trkpt><trkpt lat="43.7218361733674" lon="2.7349704716816032"><ele>884.0</ele><time>2026-04-02T09:42:28Z</time></trkpt><trkpt lat="43.72198569884072" lon="2.735177520181808"><ele>887.0</ele><time>2026-04-02T09:42:29Z</time></trkpt><trkpt lat="43.72214678755996" lon="2.7354009313380927"><ele>890.0</ele><time>2026-04-02T09:42:30Z</time></trkpt><trkpt lat="43.72230816788888" lon="2.735624747450811"><ele>890.0</ele><time>2026-04-02T09:42:31Z</time></trkpt><trkpt lat="43.72249231871736" lon="2.7358134074671976"><ele>890.0</ele><time>2026-04-02T09:42:32Z</time></trkpt><trkpt lat="43.72268364198923" lon="2.736030074089782"><ele>891.0</ele><time>2026-04-02T09:42:33Z</time></trkpt><trkpt lat="43.72288332158738" lon="2.736252418933889"><ele>892.0</ele><time>2026-04-02T09:42:34Z</time></trkpt><trkpt lat="43.72306887425486" lon="2.7364613912638065"><ele>892.0</ele><time>2026-04-02T09:42:35Z</time></trkpt><trkpt lat="43.72324010043811" lon="2.736660499773766"><ele>892.0</ele><time>2026-04-02T09:42:36Z</time></trkpt><trkpt lat="43.723393160687245" lon="2.7368825999953605"><ele>892.0</ele><time>2026-04-02T09:42:37Z</time></trkpt><trkpt lat="43.72355898148015" lon="2.7370967774231643"><ele>894.0</ele><time>2026-04-02T09:42:38Z</time></trkpt><trkpt lat="43.72370562031538" lon="2.7372926719535178"><ele>896.0</ele><time>2026-04-02T09:42:39Z</time></trkpt><trkpt lat="43.72384204561571" lon="2.7374676556012054"><ele>898.0</ele><time>2026-04-02T09:42:40Z</time></trkpt><trkpt lat="43.72398515212626" lon="2.7376040265506125"><ele>900.3333333333333</ele><time>2026-04-02T09:42:41Z</time></trkpt><trkpt lat="43.72414236864696" lon="2.7377320480361678"><ele>902.6666666666667</ele><time>2026-04-02T09:42:42Z</time></trkpt><trkpt lat="43.72433249722675" lon="2.737802568712862"><ele>905.0</ele><time>2026-04-02T09:42:43Z</time></trkpt><trkpt lat="43.724557403893485" lon="2.737804350144115"><ele>908.0</ele><time>2026-04-02T09:42:44Z</time></trkpt><trkpt lat="43.72478403504435" lon="2.7377940614621514"><ele>911.0</ele><time>2026-04-02T09:42:45Z</time></trkpt><trkpt lat="43.72501898468613" lon="2.7378118826304743"><ele>915.0</ele><time>2026-04-02T09:42:46Z</time></trkpt><trkpt lat="43.72525916837423" lon="2.7378399188717206"><ele>919.0</ele><time>2026-04-02T09:42:47Z</time></trkpt><trkpt lat="43.725510385160256" lon="2.7378695884626376"><ele>919.0</ele><time>2026-04-02T09:42:48Z</time></trkpt><trkpt lat="43.72575707558686" lon="2.73789810942352"><ele>919.0</ele><time>2026-04-02T09:42:49Z</time></trkpt><trkpt lat="43.726003788638515" lon="2.737926046153262"><ele>921.5</ele><time>2026-04-02T09:42:50Z</time></trkpt><trkpt lat="43.72624942658565" lon="2.737957061510919"><ele>924.0</ele><time>2026-04-02T09:42:51Z</time></trkpt><trkpt lat="43.72648877136098" lon="2.737983592486502"><ele>924.0</ele><time>2026-04-02T09:42:52Z</time></trkpt><trkpt lat="43.726735320275104" lon="2.738014789815878"><ele>924.0</ele><time>2026-04-02T09:42:53Z</time></trkpt><trkpt lat="43.727001933472295" lon="2.738058299493501"><ele>924.0</ele><time>2026-04-02T09:42:54Z</time></trkpt><trkpt lat="43.727262084018406" lon="2.7381041941521"><ele>924.0</ele><time>2026-04-02T09:42:55Z</time></trkpt><trkpt lat="43.727513489930026" lon="2.7381459533167574"><ele>924.5</ele><time>2026-04-02T09:42:56Z</time></trkpt><trkpt lat="43.72775354021344" lon="2.7381954077820203"><ele>925.0</ele><time>2026-04-02T09:42:57Z</time></trkpt><trkpt lat="43.72797648979392" lon="2.7382410370534216"><ele>925.0</ele><time>2026-04-02T09:42:58Z</time></trkpt><trkpt lat="43.72817409622156" lon="2.738360738439198"><ele>925.0</ele><time>2026-04-02T09:42:59Z</time></trkpt><trkpt lat="43.72835766664224" lon="2.7385033510701304"><ele>925.0</ele><time>2026-04-02T09:43:00Z</time></trkpt><trkpt lat="43.7285471829576" lon="2.7386683689772164"><ele>926.6666666666666</ele><time>2026-04-02T09:43:01Z</time></trkpt><trkpt lat="43.72869888853101" lon="2.738822467650187"><ele>928.3333333333333</ele><time>2026-04-02T09:43:02Z</time></trkpt><trkpt lat="43.72882675636339" lon="2.7389599357433743"><ele>930.0</ele><time>2026-04-02T09:43:03Z</time></trkpt><trkpt lat="43.7289302176701" lon="2.7390877649135237"><ele>930.0</ele><time>2026-04-02T09:43:04Z</time></trkpt><trkpt lat="43.72901102169424" lon="2.739232001924228"><ele>930.0</ele><time>2026-04-02T09:43:05Z</time></trkpt><trkpt lat="43.72907533824749" lon="2.739383052230848"><ele>930.0</ele><time>2026-04-02T09:43:06Z</time></trkpt><trkpt lat="43.72910405283192" lon="2.739557492225801"><ele>930.0</ele><time>2026-04-02T09:43:07Z</time></trkpt><trkpt lat="43.729147226349205" lon="2.7397896860805666"><ele>930.3333333333333</ele><time>2026-04-02T09:43:08Z</time></trkpt><trkpt lat="43.72921116218747" lon="2.740055775754483"><ele>930.6666666666666</ele><time>2026-04-02T09:43:09Z</time></trkpt><trkpt lat="43.72930977178949" lon="2.7403265321524892"><ele>931.0</ele><time>2026-04-02T09:43:10Z</time></trkpt><trkpt lat="43.72944492855666" lon="2.740569686970245"><ele>925.6666666666666</ele><time>2026-04-02T09:43:11Z</time></trkpt><trkpt lat="43.72954594146495" lon="2.74080271703306"><ele>920.3333333333333</ele><time>2026-04-02T09:43:12Z</time></trkpt><trkpt lat="43.72962941333799" lon="2.7410271906334835"><ele>915.0</ele><time>2026-04-02T09:43:13Z</time></trkpt><trkpt lat="43.72968762384336" lon="2.7412651031294466"><ele>915.0</ele><time>2026-04-02T09:43:14Z</time></trkpt><trkpt lat="43.72973142723979" lon="2.7415527389401895"><ele>915.0</ele><time>2026-04-02T09:43:15Z</time></trkpt><trkpt lat="43.7297697118213" lon="2.741834884463919"><ele>915.0</ele><time>2026-04-02T09:43:16Z</time></trkpt><trkpt lat="43.72981507773234" lon="2.742070801348139"><ele>917.0</ele><time>2026-04-02T09:43:17Z</time></trkpt><trkpt lat="43.7298575783756" lon="2.742236991242555"><ele>919.0</ele><time>2026-04-02T09:43:18Z</time></trkpt><trkpt lat="43.729910619723405" lon="2.7423552446148522"><ele>921.0</ele><time>2026-04-02T09:43:19Z</time></trkpt><trkpt lat="43.73002444113507" lon="2.742430485612901"><ele>923.0</ele><time>2026-04-02T09:43:20Z</time></trkpt><trkpt lat="43.73019277882562" lon="2.7423925792435444"><ele>920.0</ele><time>2026-04-02T09:43:21Z</time></trkpt><trkpt lat="43.73037979562392" lon="2.742375318532137"><ele>917.0</ele><time>2026-04-02T09:43:22Z</time></trkpt><trkpt lat="43.73058396754513" lon="2.7423556736548598"><ele>914.0</ele><time>2026-04-02T09:43:23Z</time></trkpt><trkpt lat="43.73080473663813" lon="2.742374658044085"><ele>914.0</ele><time>2026-04-02T09:43:24Z</time></trkpt><trkpt lat="43.73100980630881" lon="2.7423229199362296"><ele>914.0</ele><time>2026-04-02T09:43:25Z</time></trkpt><trkpt lat="43.7312219621624" lon="2.7422584849393603"><ele>914.0</ele><time>2026-04-02T09:43:26Z</time></trkpt><trkpt lat="43.73144432985986" lon="2.74217627071586"><ele>912.5</ele><time>2026-04-02T09:43:27Z</time></trkpt><trkpt lat="43.73167063580417" lon="2.7421383422717165"><ele>911.0</ele><time>2026-04-02T09:43:28Z</time></trkpt><trkpt lat="43.731900306930555" lon="2.7421399956625145"><ele>907.6666666666667</ele><time>2026-04-02T09:43:29Z</time></trkpt><trkpt lat="43.73212860862891" lon="2.74211812474175"><ele>904.3333333333333</ele><time>2026-04-02T09:43:30Z</time></trkpt><trkpt lat="43.7323471194357" lon="2.7421223455018806"><ele>901.0</ele><time>2026-04-02T09:43:31Z</time></trkpt><trkpt lat="43.73255484046731" lon="2.7421087136640967"><ele>894.0</ele><time>2026-04-02T09:43:32Z</time></trkpt><trkpt lat="43.73272927516043" lon="2.7421348638478276"><ele>887.0</ele><time>2026-04-02T09:43:33Z</time></trkpt><trkpt lat="43.73287667259407" lon="2.7422151309417653"><ele>880.0</ele><time>2026-04-02T09:43:34Z</time></trkpt><trkpt lat="43.73297925352575" lon="2.742375930743516"><ele>880.0</ele><time>2026-04-02T09:43:35Z</time></trkpt><trkpt lat="43.73307102548578" lon="2.7426039136766684"><ele>880.0</ele><time>2026-04-02T09:43:36Z</time></trkpt><trkpt lat="43.733138130562494" lon="2.7428787330647744"><ele>880.0</ele><time>2026-04-02T09:43:37Z</time></trkpt><trkpt lat="43.73319861599287" lon="2.7431709444115233"><ele>882.3333333333333</ele><time>2026-04-02T09:43:38Z</time></trkpt><trkpt lat="43.73327883241417" lon="2.743453427152231"><ele>884.6666666666667</ele><time>2026-04-02T09:43:39Z</time></trkpt><trkpt lat="43.733385804469954" lon="2.743719912255036"><ele>887.0</ele><time>2026-04-02T09:43:40Z</time></trkpt><trkpt lat="43.73351273413418" lon="2.743976665358887"><ele>879.0</ele><time>2026-04-02T09:43:41Z</time></trkpt><trkpt lat="43.73366592955308" lon="2.7442195321753564"><ele>871.0</ele><time>2026-04-02T09:43:42Z</time></trkpt><trkpt lat="43.733820972693984" lon="2.744470865632668"><ele>871.0</ele><time>2026-04-02T09:43:43Z</time></trkpt><trkpt lat="43.73394951008445" lon="2.744738675805848"><ele>871.0</ele><time>2026-04-02T09:43:44Z</time></trkpt><trkpt lat="43.734051561415136" lon="2.745020393339002"><ele>873.0</ele><time>2026-04-02T09:43:45Z</time></trkpt><trkpt lat="43.7341477366493" lon="2.745295661185606"><ele>875.0</ele><time>2026-04-02T09:43:46Z</time></trkpt><trkpt lat="43.73425152531918" lon="2.7455422611459666"><ele>877.0</ele><time>2026-04-02T09:43:47Z</time></trkpt><trkpt lat="43.73435623045639" lon="2.745761975486425"><ele>874.6666666666666</ele><time>2026-04-02T09:43:48Z</time></trkpt><trkpt lat="43.734456135814405" lon="2.7459538043547402"><ele>872.3333333333333</ele><time>2026-04-02T09:43:49Z</time></trkpt><trkpt lat="43.73456440507102" lon="2.7461062102193665"><ele>870.0</ele><time>2026-04-02T09:43:50Z</time></trkpt><trkpt lat="43.734676850139444" lon="2.746200618896465"><ele>870.0</ele><time>2026-04-02T09:43:51Z</time></trkpt><trkpt lat="43.73480697340621" lon="2.746234951117293"><ele>870.0</ele><time>2026-04-02T09:43:52Z</time></trkpt><trkpt lat="43.73493945179303" lon="2.7461952943229044"><ele>870.0</ele><time>2026-04-02T09:43:53Z</time></trkpt><trkpt lat="43.73505989334079" lon="2.746088529375097"><ele>870.0</ele><time>2026-04-02T09:43:54Z</time></trkpt><trkpt lat="43.73512964790707" lon="2.74595205947542"><ele>869.3333333333334</ele><time>2026-04-02T09:43:55Z</time></trkpt><trkpt lat="43.7351626765078" lon="2.7458707083904095"><ele>868.6666666666667</ele><time>2026-04-02T09:43:56Z</time></trkpt><trkpt lat="43.7352280782826" lon="2.7458505016787718"><ele>868.0</ele><time>2026-04-02T09:43:58Z</time></trkpt><trkpt lat="43.73526442029068" lon="2.7457516613304143"><ele>867.3333333333334</ele><time>2026-04-02T09:44:01Z</time></trkpt><trkpt lat="43.73528996026788" lon="2.7456279676372897"><ele>866.6666666666667</ele><time>2026-04-02T09:45:50Z</time></trkpt><trkpt lat="43.735334735781635" lon="2.7454895446113645"><ele>866.0</ele><time>2026-04-02T09:45:52Z</time></trkpt><trkpt lat="43.735308334751515" lon="2.745335432834251"><ele>864.0000000000001</ele><time>2026-04-02T09:45:54Z</time></trkpt><trkpt lat="43.735328848844915" lon="2.74525290140976"><ele>862.0</ele><time>2026-04-02T09:45:56Z</time></trkpt><trkpt lat="43.73546443630997" lon="2.745229249381744"><ele>860.0</ele><time>2026-04-02T09:45:58Z</time></trkpt><trkpt lat="43.73552782654327" lon="2.745173366642033"><ele>858.0</ele><time>2026-04-02T09:46:01Z</time></trkpt><trkpt lat="43.73559946756093" lon="2.7451304249449273"><ele>856.0000000000001</ele><time>2026-04-02T09:46:04Z</time></trkpt><trkpt lat="43.735681585396065" lon="2.745067461213502"><ele>854.0</ele><time>2026-04-02T09:46:07Z</time></trkpt><trkpt lat="43.73573089645847" lon="2.7449978964568795"><ele>854.0000000000001</ele><time>2026-04-02T09:46:09Z</time></trkpt><trkpt lat="43.73579485428483" lon="2.744918859674534"><ele>854.0</ele><time>2026-04-02T09:46:12Z</time></trkpt><trkpt lat="43.73581476081487" lon="2.74481463546254"><ele>854.0</ele><time>2026-04-02T09:46:15Z</time></trkpt><trkpt lat="43.735798515567396" lon="2.74472209119913"><ele>854.0</ele><time>2026-04-02T09:46:17Z</time></trkpt><trkpt lat="43.73575121945995" lon="2.7446435530309077"><ele>854.0000000000001</ele><time>2026-04-02T09:46:19Z</time></trkpt><trkpt lat="43.73568579655616" lon="2.744675055874754"><ele>854.0</ele><time>2026-04-02T09:46:21Z</time></trkpt><trkpt lat="43.73561457798363" lon="2.744767901907889"><ele>854.0</ele><time>2026-04-02T09:46:23Z</time></trkpt><trkpt lat="43.73558105101676" lon="2.744843378622993"><ele>854.0000000000001</ele><time>2026-04-02T09:46:25Z</time></trkpt><trkpt lat="43.73556559345042" lon="2.744978661384779"><ele>854.0000000000001</ele><time>2026-04-02T09:46:27Z</time></trkpt><trkpt lat="43.73552588184725" lon="2.7451275017124632"><ele>854.0</ele><time>2026-04-02T09:46:29Z</time></trkpt><trkpt lat="43.735472136179965" lon="2.7452413288556303"><ele>854.0</ele><time>2026-04-02T09:46:31Z</time></trkpt><trkpt lat="43.73541528969781" lon="2.7453735173163127"><ele>853.6</ele><time>2026-04-02T09:46:33Z</time></trkpt><trkpt lat="43.73535206962147" lon="2.745514252623389"><ele>853.2</ele><time>2026-04-02T09:46:35Z</time></trkpt><trkpt lat="43.73529047490272" lon="2.7456309861332673"><ele>852.8000000000001</ele><time>2026-04-02T09:46:37Z</time></trkpt><trkpt lat="43.73526012134836" lon="2.745721567324074"><ele>852.4000000000001</ele><time>2026-04-02T09:46:38Z</time></trkpt><trkpt lat="43.735235984106104" lon="2.74581026871545"><ele>852.0</ele><time>2026-04-02T09:46:39Z</time></trkpt><trkpt lat="43.73511044409336" lon="2.745831968338313"><ele>852.0</ele><time>2026-04-02T09:46:41Z</time></trkpt><trkpt lat="43.73513614121131" lon="2.7457495641439578"><ele>852.0</ele><time>2026-04-02T09:46:46Z</time></trkpt><trkpt lat="43.73517678558027" lon="2.7456463980451686"><ele>852.0</ele><time>2026-04-02T09:46:47Z</time></trkpt><trkpt lat="43.73522354889409" lon="2.7455351999621405"><ele>852.0</ele><time>2026-04-02T09:46:48Z</time></trkpt><trkpt lat="43.735269017080334" lon="2.745400834982148"><ele>852.0</ele><time>2026-04-02T09:46:49Z</time></trkpt><trkpt lat="43.73531272394683" lon="2.745237983938341"><ele>852.5</ele><time>2026-04-02T09:46:50Z</time></trkpt><trkpt lat="43.735358843782585" lon="2.745059367682934"><ele>853.0</ele><time>2026-04-02T09:46:51Z</time></trkpt><trkpt lat="43.735413050771875" lon="2.7448704453051476"><ele>853.5</ele><time>2026-04-02T09:46:52Z</time></trkpt><trkpt lat="43.73546640658958" lon="2.744712855812901"><ele>854.0</ele><time>2026-04-02T09:46:53Z</time></trkpt><trkpt lat="43.73552867227795" lon="2.7445772727605586"><ele>854.0</ele><time>2026-04-02T09:46:54Z</time></trkpt><trkpt lat="43.73560003566431" lon="2.7444719974266936"><ele>854.0000000000001</ele><time>2026-04-02T09:46:55Z</time></trkpt><trkpt lat="43.73567183177543" lon="2.7444155187839714"><ele>854.0000000000001</ele><time>2026-04-02T09:46:56Z</time></trkpt><trkpt lat="43.73575194177735" lon="2.744419848745147"><ele>854.0</ele><time>2026-04-02T09:46:57Z</time></trkpt><trkpt lat="43.73582912838734" lon="2.7444974204921815"><ele>854.0</ele><time>2026-04-02T09:46:58Z</time></trkpt><trkpt lat="43.735885588243725" lon="2.7446214355945937"><ele>854.0</ele><time>2026-04-02T09:46:59Z</time></trkpt><trkpt lat="43.73589589230817" lon="2.744762426503847"><ele>854.0000000000001</ele><time>2026-04-02T09:47:00Z</time></trkpt><trkpt lat="43.73589097001061" lon="2.744910508261731"><ele>854.0000000000001</ele><time>2026-04-02T09:47:01Z</time></trkpt><trkpt lat="43.735901641037486" lon="2.745055964044172"><ele>854.0</ele><time>2026-04-02T09:47:02Z</time></trkpt><trkpt lat="43.735921553408126" lon="2.7452104970344715"><ele>854.0</ele><time>2026-04-02T09:47:03Z</time></trkpt><trkpt lat="43.735936299619674" lon="2.745370874745404"><ele>853.5</ele><time>2026-04-02T09:47:04Z</time></trkpt><trkpt lat="43.73595024695765" lon="2.7455370603440947"><ele>853.0</ele><time>2026-04-02T09:47:05Z</time></trkpt><trkpt lat="43.73595590291292" lon="2.7457234635437597"><ele>852.5</ele><time>2026-04-02T09:47:06Z</time></trkpt><trkpt lat="43.73595276146168" lon="2.7459383496734864"><ele>852.0</ele><time>2026-04-02T09:47:07Z</time></trkpt><trkpt lat="43.73593973088836" lon="2.746152186741365"><ele>850.75</ele><time>2026-04-02T09:47:08Z</time></trkpt><trkpt lat="43.7359196603508" lon="2.746356702601716"><ele>849.5</ele><time>2026-04-02T09:47:09Z</time></trkpt><trkpt lat="43.735898760668434" lon="2.746560747900614"><ele>848.25</ele><time>2026-04-02T09:47:10Z</time></trkpt><trkpt lat="43.73587497269662" lon="2.746752543500289"><ele>847.0</ele><time>2026-04-02T09:47:11Z</time></trkpt><trkpt lat="43.73584440934883" lon="2.746960868462958"><ele>844.3333333333333</ele><time>2026-04-02T09:47:12Z</time></trkpt><trkpt lat="43.73579871469152" lon="2.7471740663912176"><ele>841.6666666666667</ele><time>2026-04-02T09:47:13Z</time></trkpt><trkpt lat="43.73574322653815" lon="2.7473918091517904"><ele>839.0</ele><time>2026-04-02T09:47:14Z</time></trkpt><trkpt lat="43.73567955323841" lon="2.7476195198555557"><ele>836.6666666666667</ele><time>2026-04-02T09:47:15Z</time></trkpt><trkpt lat="43.73561256785771" lon="2.747852462210935"><ele>834.3333333333333</ele><time>2026-04-02T09:47:16Z</time></trkpt><trkpt lat="43.73554886331255" lon="2.7481153992763776"><ele>832.0</ele><time>2026-04-02T09:47:17Z</time></trkpt><trkpt lat="43.735497310247624" lon="2.7483939331822254"><ele>829.3333333333333</ele><time>2026-04-02T09:47:18Z</time></trkpt><trkpt lat="43.735454535176395" lon="2.748671536189172"><ele>826.6666666666667</ele><time>2026-04-02T09:47:19Z</time></trkpt><trkpt lat="43.735434641385254" lon="2.7489796813182554"><ele>824.0</ele><time>2026-04-02T09:47:20Z</time></trkpt><trkpt lat="43.735414743084085" lon="2.7492840256053053"><ele>823.0</ele><time>2026-04-02T09:47:21Z</time></trkpt><trkpt lat="43.7353888024031" lon="2.7495666485400476"><ele>822.0</ele><time>2026-04-02T09:47:22Z</time></trkpt><trkpt lat="43.73536918730564" lon="2.7498053358857963"><ele>821.0</ele><time>2026-04-02T09:47:23Z</time></trkpt><trkpt lat="43.735374275272115" lon="2.7500392802121816"><ele>822.5</ele><time>2026-04-02T09:47:24Z</time></trkpt><trkpt lat="43.73540247868051" lon="2.750269714783378"><ele>824.0</ele><time>2026-04-02T09:47:25Z</time></trkpt><trkpt lat="43.73542923409815" lon="2.7504614664960703"><ele>825.5</ele><time>2026-04-02T09:47:26Z</time></trkpt><trkpt lat="43.73551473405445" lon="2.750605504155991"><ele>827.0</ele><time>2026-04-02T09:47:27Z</time></trkpt><trkpt lat="43.73563206717179" lon="2.750727582253252"><ele>827.0</ele><time>2026-04-02T09:47:28Z</time></trkpt><trkpt lat="43.735780349292384" lon="2.7508431870657812"><ele>827.0</ele><time>2026-04-02T09:47:29Z</time></trkpt><trkpt lat="43.73595483272328" lon="2.7509357986641674"><ele>827.0</ele><time>2026-04-02T09:47:30Z</time></trkpt><trkpt lat="43.736157830497014" lon="2.7510315053459755"><ele>825.3333333333334</ele><time>2026-04-02T09:47:31Z</time></trkpt><trkpt lat="43.73637478528892" lon="2.751086593527262"><ele>823.6666666666667</ele><time>2026-04-02T09:47:32Z</time></trkpt><trkpt lat="43.73658712245657" lon="2.7511374234458645"><ele>822.0</ele><time>2026-04-02T09:47:33Z</time></trkpt><trkpt lat="43.73679199694781" lon="2.7511971126719215"><ele>818.0</ele><time>2026-04-02T09:47:34Z</time></trkpt><trkpt lat="43.736989270813865" lon="2.7513005591050343"><ele>814.0</ele><time>2026-04-02T09:47:35Z</time></trkpt><trkpt lat="43.73716156523796" lon="2.7514352211080957"><ele>810.0</ele><time>2026-04-02T09:47:36Z</time></trkpt><trkpt lat="43.73736002364206" lon="2.751608716319379"><ele>810.0</ele><time>2026-04-02T09:47:37Z</time></trkpt><trkpt lat="43.73754274167977" lon="2.7517894713943964"><ele>810.0</ele><time>2026-04-02T09:47:38Z</time></trkpt><trkpt lat="43.737699912536236" lon="2.751947495798924"><ele>810.0</ele><time>2026-04-02T09:47:39Z</time></trkpt><trkpt lat="43.737863151084845" lon="2.752068394982799"><ele>809.6666666666667</ele><time>2026-04-02T09:47:40Z</time></trkpt><trkpt lat="43.73804005253656" lon="2.75215739052472"><ele>809.3333333333334</ele><time>2026-04-02T09:47:41Z</time></trkpt><trkpt lat="43.73825367791405" lon="2.7521710300706306"><ele>809.0</ele><time>2026-04-02T09:47:42Z</time></trkpt><trkpt lat="43.73849072797532" lon="2.75218390356428"><ele>800.5</ele><time>2026-04-02T09:47:43Z</time></trkpt><trkpt lat="43.73873968058664" lon="2.752222409219447"><ele>792.0</ele><time>2026-04-02T09:47:44Z</time></trkpt><trkpt lat="43.738998596077955" lon="2.7522586510144618"><ele>792.0</ele><time>2026-04-02T09:47:45Z</time></trkpt><trkpt lat="43.739257549836125" lon="2.752305194778102"><ele>792.0</ele><time>2026-04-02T09:47:46Z</time></trkpt><trkpt lat="43.73949768323353" lon="2.7523242948421136"><ele>788.6666666666667</ele><time>2026-04-02T09:47:47Z</time></trkpt><trkpt lat="43.73971592365377" lon="2.7522934599651743"><ele>785.3333333333334</ele><time>2026-04-02T09:47:48Z</time></trkpt><trkpt lat="43.739904392197396" lon="2.752245609739428"><ele>782.0</ele><time>2026-04-02T09:47:49Z</time></trkpt><trkpt lat="43.74007808063733" lon="2.7522388336006447"><ele>777.0</ele><time>2026-04-02T09:47:50Z</time></trkpt><trkpt lat="43.7402569826726" lon="2.752312982921921"><ele>772.0</ele><time>2026-04-02T09:47:51Z</time></trkpt><trkpt lat="43.740426418721235" lon="2.7524366265841986"><ele>767.0</ele><time>2026-04-02T09:47:52Z</time></trkpt><trkpt lat="43.74060979857891" lon="2.752587603071808"><ele>772.0</ele><time>2026-04-02T09:47:53Z</time></trkpt><trkpt lat="43.74079530531723" lon="2.7527652732309584"><ele>777.0</ele><time>2026-04-02T09:47:54Z</time></trkpt><trkpt lat="43.74097237424222" lon="2.752960335960862"><ele>768.5</ele><time>2026-04-02T09:47:55Z</time></trkpt><trkpt lat="43.7411397150574" lon="2.753176630428986"><ele>760.0</ele><time>2026-04-02T09:47:56Z</time></trkpt><trkpt lat="43.741289769282" lon="2.753406279044043"><ele>762.3333333333334</ele><time>2026-04-02T09:47:57Z</time></trkpt><trkpt lat="43.74144579258173" lon="2.753601171709166"><ele>764.6666666666666</ele><time>2026-04-02T09:47:58Z</time></trkpt><trkpt lat="43.74160505645696" lon="2.753773423557974"><ele>767.0</ele><time>2026-04-02T09:47:59Z</time></trkpt><trkpt lat="43.74177673997323" lon="2.753910698923821"><ele>764.3333333333333</ele><time>2026-04-02T09:48:00Z</time></trkpt><trkpt lat="43.74195730216884" lon="2.753984545029865"><ele>761.6666666666666</ele><time>2026-04-02T09:48:01Z</time></trkpt><trkpt lat="43.74215534911219" lon="2.7540183394875277"><ele>759.0</ele><time>2026-04-02T09:48:02Z</time></trkpt><trkpt lat="43.742348836909784" lon="2.7540081118473196"><ele>759.0</ele><time>2026-04-02T09:48:03Z</time></trkpt><trkpt lat="43.74250258604336" lon="2.754006191312285"><ele>759.0</ele><time>2026-04-02T09:48:04Z</time></trkpt><trkpt lat="43.74262162948393" lon="2.7541035026673253"><ele>759.0</ele><time>2026-04-02T09:48:05Z</time></trkpt><trkpt lat="43.74273461786286" lon="2.7542663301684454"><ele>757.3333333333334</ele><time>2026-04-02T09:48:06Z</time></trkpt><trkpt lat="43.7428737202464" lon="2.754472635886037"><ele>755.6666666666667</ele><time>2026-04-02T09:48:07Z</time></trkpt><trkpt lat="43.74304409128305" lon="2.7546652159649283"><ele>754.0</ele><time>2026-04-02T09:48:08Z</time></trkpt><trkpt lat="43.743223716000145" lon="2.754893128659288"><ele>754.0</ele><time>2026-04-02T09:48:09Z</time></trkpt><trkpt lat="43.74335300526078" lon="2.7551211396622732"><ele>754.0</ele><time>2026-04-02T09:48:10Z</time></trkpt><trkpt lat="43.74344493087445" lon="2.7553433961682896"><ele>754.0</ele><time>2026-04-02T09:48:11Z</time></trkpt><trkpt lat="43.74353651150767" lon="2.7555292733398953"><ele>750.3333333333334</ele><time>2026-04-02T09:48:12Z</time></trkpt><trkpt lat="43.743654112081494" lon="2.7556775413089314"><ele>746.6666666666666</ele><time>2026-04-02T09:48:13Z</time></trkpt><trkpt lat="43.74382299632596" lon="2.7557426361281907"><ele>743.0</ele><time>2026-04-02T09:48:14Z</time></trkpt><trkpt lat="43.74402869588512" lon="2.755789023282016"><ele>743.0</ele><time>2026-04-02T09:48:15Z</time></trkpt><trkpt lat="43.744263902930065" lon="2.7558362072649394"><ele>743.0</ele><time>2026-04-02T09:48:16Z</time></trkpt><trkpt lat="43.74445556309336" lon="2.7559840450170885"><ele>740.6666666666666</ele><time>2026-04-02T09:48:17Z</time></trkpt><trkpt lat="43.744633683152635" lon="2.7560820263200805"><ele>738.3333333333334</ele><time>2026-04-02T09:48:18Z</time></trkpt><trkpt lat="43.744796607049295" lon="2.756155204182798"><ele>736.0</ele><time>2026-04-02T09:48:19Z</time></trkpt><trkpt lat="43.744932052489396" lon="2.756269344878092"><ele>736.0</ele><time>2026-04-02T09:48:20Z</time></trkpt><trkpt lat="43.74501869949053" lon="2.7564450095291315"><ele>736.0</ele><time>2026-04-02T09:48:21Z</time></trkpt><trkpt lat="43.74507806372898" lon="2.7566690708228307"><ele>736.0</ele><time>2026-04-02T09:48:22Z</time></trkpt><trkpt lat="43.74507737400544" lon="2.756900983254088"><ele>734.6666666666667</ele><time>2026-04-02T09:48:23Z</time></trkpt><trkpt lat="43.74503067484457" lon="2.7571412237103314"><ele>733.3333333333334</ele><time>2026-04-02T09:48:24Z</time></trkpt><trkpt lat="43.74496502386484" lon="2.7574280649007106"><ele>732.0</ele><time>2026-04-02T09:48:25Z</time></trkpt><trkpt lat="43.74490256279796" lon="2.7577460097557793"><ele>731.0</ele><time>2026-04-02T09:48:26Z</time></trkpt><trkpt lat="43.74483831458193" lon="2.7580388363943436"><ele>730.0</ele><time>2026-04-02T09:48:27Z</time></trkpt><trkpt lat="43.744776440756176" lon="2.7583082148962297"><ele>729.0</ele><time>2026-04-02T09:48:28Z</time></trkpt><trkpt lat="43.744721998588666" lon="2.7585576793587556"><ele>727.6666666666666</ele><time>2026-04-02T09:48:29Z</time></trkpt><trkpt lat="43.74468062254247" lon="2.7588080405241655"><ele>726.3333333333333</ele><time>2026-04-02T09:48:30Z</time></trkpt><trkpt lat="43.74467200558547" lon="2.759049189661663"><ele>725.0</ele><time>2026-04-02T09:48:31Z</time></trkpt><trkpt lat="43.74470789050983" lon="2.759280765220723"><ele>721.3333333333333</ele><time>2026-04-02T09:48:32Z</time></trkpt><trkpt lat="43.74479548267973" lon="2.7594708486077275"><ele>717.6666666666666</ele><time>2026-04-02T09:48:33Z</time></trkpt><trkpt lat="43.74492786280431" lon="2.7596192941229503"><ele>714.0</ele><time>2026-04-02T09:48:34Z</time></trkpt><trkpt lat="43.74511050304448" lon="2.7597539289643795"><ele>720.5</ele><time>2026-04-02T09:48:35Z</time></trkpt><trkpt lat="43.74526364996351" lon="2.7599766698415933"><ele>727.0</ele><time>2026-04-02T09:48:36Z</time></trkpt><trkpt lat="43.74543606782759" lon="2.760184514997006"><ele>721.3333333333334</ele><time>2026-04-02T09:48:37Z</time></trkpt><trkpt lat="43.745581485952506" lon="2.7603865804844223"><ele>715.6666666666666</ele><time>2026-04-02T09:48:38Z</time></trkpt><trkpt lat="43.74573246347248" lon="2.760566942788143"><ele>710.0</ele><time>2026-04-02T09:48:39Z</time></trkpt><trkpt lat="43.745873330486745" lon="2.7607495227428487"><ele>710.0</ele><time>2026-04-02T09:48:40Z</time></trkpt><trkpt lat="43.74601077531718" lon="2.7609221091332814"><ele>710.0</ele><time>2026-04-02T09:48:41Z</time></trkpt><trkpt lat="43.74615703819016" lon="2.761036066661802"><ele>710.0</ele><time>2026-04-02T09:48:42Z</time></trkpt><trkpt lat="43.74633431458717" lon="2.7610334005272485"><ele>709.6666666666666</ele><time>2026-04-02T09:48:43Z</time></trkpt><trkpt lat="43.74653322841727" lon="2.7610201487494663"><ele>709.3333333333334</ele><time>2026-04-02T09:48:44Z</time></trkpt><trkpt lat="43.746754765233796" lon="2.760975576230474"><ele>709.0</ele><time>2026-04-02T09:48:45Z</time></trkpt><trkpt lat="43.74694913946387" lon="2.760996284763301"><ele>706.0</ele><time>2026-04-02T09:48:46Z</time></trkpt><trkpt lat="43.74710908311004" lon="2.7610092419935914"><ele>703.0</ele><time>2026-04-02T09:48:47Z</time></trkpt><trkpt lat="43.747239713540424" lon="2.760954412178027"><ele>700.0</ele><time>2026-04-02T09:48:48Z</time></trkpt><trkpt lat="43.74732965132971" lon="2.7608373277202047"><ele>697.0</ele><time>2026-04-02T09:48:49Z</time></trkpt><trkpt lat="43.74734535324113" lon="2.7606575448659063"><ele>697.0</ele><time>2026-04-02T09:48:50Z</time></trkpt><trkpt lat="43.74737062939682" lon="2.7604489161983716"><ele>697.0</ele><time>2026-04-02T09:48:51Z</time></trkpt><trkpt lat="43.74739578086956" lon="2.760262333931979"><ele>697.0</ele><time>2026-04-02T09:48:52Z</time></trkpt><trkpt lat="43.74750901355347" lon="2.7601797821640752"><ele>697.0</ele><time>2026-04-02T09:48:53Z</time></trkpt><trkpt lat="43.74765099756711" lon="2.7601361040710706"><ele>697.3333333333334</ele><time>2026-04-02T09:48:54Z</time></trkpt><trkpt lat="43.74780300599035" lon="2.76016698831294"><ele>697.6666666666666</ele><time>2026-04-02T09:48:55Z</time></trkpt><trkpt lat="43.74797205964757" lon="2.760147262477416"><ele>698.0</ele><time>2026-04-02T09:48:56Z</time></trkpt><trkpt lat="43.74812775965286" lon="2.7601030839319844"><ele>698.0</ele><time>2026-04-02T09:48:57Z</time></trkpt><trkpt lat="43.74825806864813" lon="2.759972162073347"><ele>698.0</ele><time>2026-04-02T09:48:58Z</time></trkpt><trkpt lat="43.748362386442295" lon="2.759828659739942"><ele>698.0</ele><time>2026-04-02T09:48:59Z</time></trkpt><trkpt lat="43.74848791525315" lon="2.7597799182863096"><ele>698.0</ele><time>2026-04-02T09:49:00Z</time></trkpt><trkpt lat="43.7486166177015" lon="2.7598752712309773"><ele>696.6666666666666</ele><time>2026-04-02T09:49:01Z</time></trkpt><trkpt lat="43.74869983182279" lon="2.7600165727492976"><ele>695.3333333333334</ele><time>2026-04-02T09:49:02Z</time></trkpt><trkpt lat="43.74877868660122" lon="2.760202336331674"><ele>694.0</ele><time>2026-04-02T09:49:03Z</time></trkpt><trkpt lat="43.74885693465481" lon="2.760421267348615"><ele>694.0</ele><time>2026-04-02T09:49:04Z</time></trkpt><trkpt lat="43.748938128842674" lon="2.760675797756206"><ele>694.0</ele><time>2026-04-02T09:49:05Z</time></trkpt><trkpt lat="43.74903043787039" lon="2.760927143997918"><ele>694.0</ele><time>2026-04-02T09:49:06Z</time></trkpt><trkpt lat="43.749119936273836" lon="2.761156307638347"><ele>691.3333333333334</ele><time>2026-04-02T09:49:07Z</time></trkpt><trkpt lat="43.749230943468945" lon="2.7613661769978974"><ele>688.6666666666666</ele><time>2026-04-02T09:49:08Z</time></trkpt><trkpt lat="43.74935858896027" lon="2.7615421468932"><ele>686.0</ele><time>2026-04-02T09:49:09Z</time></trkpt><trkpt lat="43.74952050512498" lon="2.7616607661737342"><ele>686.0</ele><time>2026-04-02T09:49:10Z</time></trkpt><trkpt lat="43.74972262107534" lon="2.7617096027007193"><ele>686.0</ele><time>2026-04-02T09:49:11Z</time></trkpt><trkpt lat="43.74992052458436" lon="2.7618217737706896"><ele>686.0</ele><time>2026-04-02T09:49:12Z</time></trkpt><trkpt lat="43.75012131341848" lon="2.761990297666389"><ele>677.0</ele><time>2026-04-02T09:49:13Z</time></trkpt><trkpt lat="43.75032408818126" lon="2.762177456485474"><ele>668.0</ele><time>2026-04-02T09:49:14Z</time></trkpt><trkpt lat="43.75051949782893" lon="2.7623587572268535"><ele>668.0</ele><time>2026-04-02T09:49:15Z</time></trkpt><trkpt lat="43.7506904765494" lon="2.762504471521457"><ele>668.0</ele><time>2026-04-02T09:49:16Z</time></trkpt><trkpt lat="43.75082314016715" lon="2.762647114582318"><ele>668.0</ele><time>2026-04-02T09:49:17Z</time></trkpt><trkpt lat="43.750936589362105" lon="2.7627627921024507"><ele>664.3333333333333</ele><time>2026-04-02T09:49:18Z</time></trkpt><trkpt lat="43.751079311391436" lon="2.7628088692031683"><ele>660.6666666666666</ele><time>2026-04-02T09:49:19Z</time></trkpt><trkpt lat="43.751240654813294" lon="2.762751648047577"><ele>657.0</ele><time>2026-04-02T09:49:20Z</time></trkpt><trkpt lat="43.75141993790952" lon="2.7626229135919216"><ele>657.0</ele><time>2026-04-02T09:49:21Z</time></trkpt><trkpt lat="43.75161199548714" lon="2.762551087538419"><ele>657.0</ele><time>2026-04-02T09:49:22Z</time></trkpt><trkpt lat="43.75182060952448" lon="2.7625578404961413"><ele>657.0</ele><time>2026-04-02T09:49:23Z</time></trkpt><trkpt lat="43.75205083647275" lon="2.762608729046927"><ele>661.0</ele><time>2026-04-02T09:49:24Z</time></trkpt><trkpt lat="43.75227696942163" lon="2.7626868971527307"><ele>665.0</ele><time>2026-04-02T09:49:25Z</time></trkpt><trkpt lat="43.75250012247943" lon="2.7627074885960154"><ele>669.0</ele><time>2026-04-02T09:49:26Z</time></trkpt><trkpt lat="43.75274397356001" lon="2.76271308576367"><ele>673.0</ele><time>2026-04-02T09:49:27Z</time></trkpt><trkpt lat="43.75297092171201" lon="2.7626809978791105"><ele>660.6666666666667</ele><time>2026-04-02T09:49:28Z</time></trkpt><trkpt lat="43.75317498989065" lon="2.7627105974786694"><ele>648.3333333333334</ele><time>2026-04-02T09:49:29Z</time></trkpt><trkpt lat="43.75335619485835" lon="2.7627601446001315"><ele>636.0</ele><time>2026-04-02T09:49:30Z</time></trkpt><trkpt lat="43.75351045425174" lon="2.7628351952931878"><ele>638.75</ele><time>2026-04-02T09:49:31Z</time></trkpt><trkpt lat="43.753635211144655" lon="2.7629289229773777"><ele>641.5</ele><time>2026-04-02T09:49:32Z</time></trkpt><trkpt lat="43.75374957037048" lon="2.7630296464526047"><ele>644.25</ele><time>2026-04-02T09:49:33Z</time></trkpt><trkpt lat="43.75386544031167" lon="2.7631499195179834"><ele>647.0</ele><time>2026-04-02T09:49:34Z</time></trkpt><trkpt lat="43.754005252543415" lon="2.7632644024908033"><ele>647.0</ele><time>2026-04-02T09:49:35Z</time></trkpt><trkpt lat="43.75418661262698" lon="2.763362369282356"><ele>647.0</ele><time>2026-04-02T09:49:36Z</time></trkpt><trkpt lat="43.75438836662789" lon="2.7634055225843666"><ele>647.0</ele><time>2026-04-02T09:49:37Z</time></trkpt><trkpt lat="43.754603982730266" lon="2.7634010157950915"><ele>647.3333333333333</ele><time>2026-04-02T09:49:38Z</time></trkpt><trkpt lat="43.75481258935302" lon="2.7633468822942104"><ele>647.6666666666666</ele><time>2026-04-02T09:49:39Z</time></trkpt><trkpt lat="43.75501011065328" lon="2.7633528025255867"><ele>648.0</ele><time>2026-04-02T09:49:40Z</time></trkpt><trkpt lat="43.75521181092196" lon="2.7634242357937353"><ele>644.5</ele><time>2026-04-02T09:49:41Z</time></trkpt><trkpt lat="43.75544434997521" lon="2.7635204128983144"><ele>641.0</ele><time>2026-04-02T09:49:42Z</time></trkpt><trkpt lat="43.75569316586606" lon="2.763563455947997"><ele>634.0</ele><time>2026-04-02T09:49:43Z</time></trkpt><trkpt lat="43.755916686267554" lon="2.763604716553753"><ele>627.0</ele><time>2026-04-02T09:49:44Z</time></trkpt><trkpt lat="43.75612398391353" lon="2.763601384382334"><ele>620.0</ele><time>2026-04-02T09:49:45Z</time></trkpt><trkpt lat="43.756290148425435" lon="2.763627803268942"><ele>620.0</ele><time>2026-04-02T09:49:46Z</time></trkpt><trkpt lat="43.75644117802698" lon="2.7636862920107195"><ele>620.0</ele><time>2026-04-02T09:49:47Z</time></trkpt><trkpt lat="43.75658550283405" lon="2.763825224881856"><ele>620.0</ele><time>2026-04-02T09:49:48Z</time></trkpt><trkpt lat="43.75673361949073" lon="2.764021742128067"><ele>620.3333333333333</ele><time>2026-04-02T09:49:49Z</time></trkpt><trkpt lat="43.75690034032707" lon="2.7642129341395143"><ele>620.6666666666666</ele><time>2026-04-02T09:49:50Z</time></trkpt><trkpt lat="43.75704262070198" lon="2.764383658289388"><ele>621.0</ele><time>2026-04-02T09:49:51Z</time></trkpt><trkpt lat="43.75717782918745" lon="2.764488657448335"><ele>611.0</ele><time>2026-04-02T09:49:52Z</time></trkpt><trkpt lat="43.757313716485854" lon="2.764529285757815"><ele>601.0</ele><time>2026-04-02T09:49:53Z</time></trkpt><trkpt lat="43.75747638535679" lon="2.7644871723862225"><ele>591.0</ele><time>2026-04-02T09:49:54Z</time></trkpt><trkpt lat="43.75764930278703" lon="2.7643684786475924"><ele>591.0</ele><time>2026-04-02T09:49:55Z</time></trkpt><trkpt lat="43.757808717168096" lon="2.7642243080438766"><ele>591.0</ele><time>2026-04-02T09:49:56Z</time></trkpt><trkpt lat="43.75793524558879" lon="2.7640561330781726"><ele>591.0</ele><time>2026-04-02T09:49:57Z</time></trkpt><trkpt lat="43.75802532823965" lon="2.763829453139548"><ele>591.0</ele><time>2026-04-02T09:49:58Z</time></trkpt><trkpt lat="43.75809021927784" lon="2.763557915192925"><ele>591.0</ele><time>2026-04-02T09:49:59Z</time></trkpt><trkpt lat="43.75816018889891" lon="2.7632824176804487"><ele>591.0</ele><time>2026-04-02T09:50:00Z</time></trkpt><trkpt lat="43.75822949991374" lon="2.7630343686831655"><ele>594.0</ele><time>2026-04-02T09:50:01Z</time></trkpt><trkpt lat="43.758266809035206" lon="2.762802834981939"><ele>597.0</ele><time>2026-04-02T09:50:02Z</time></trkpt><trkpt lat="43.75825606476678" lon="2.762556510972901"><ele>600.0</ele><time>2026-04-02T09:50:03Z</time></trkpt><trkpt lat="43.75820066569382" lon="2.7622748507311505"><ele>600.0</ele><time>2026-04-02T09:50:04Z</time></trkpt><trkpt lat="43.758166853864196" lon="2.761989407536537"><ele>600.0</ele><time>2026-04-02T09:50:05Z</time></trkpt><trkpt lat="43.75815551941279" lon="2.7617422282846507"><ele>600.0</ele><time>2026-04-02T09:50:06Z</time></trkpt><trkpt lat="43.758168024809414" lon="2.7615895445241545"><ele>599.4</ele><time>2026-04-02T09:50:07Z</time></trkpt><trkpt lat="43.75818154642714" lon="2.7614838011802236"><ele>598.8</ele><time>2026-04-02T09:50:08Z</time></trkpt><trkpt lat="43.75825548864712" lon="2.76140947432776"><ele>598.2</ele><time>2026-04-02T09:50:10Z</time></trkpt><trkpt lat="43.7583033287255" lon="2.761551939388054"><ele>597.6</ele><time>2026-04-02T09:50:12Z</time></trkpt><trkpt lat="43.75829210448196" lon="2.7616616075688114"><ele>597.0</ele><time>2026-04-02T09:50:13Z</time></trkpt><trkpt lat="43.75827607180211" lon="2.761812252286958"><ele>597.75</ele><time>2026-04-02T09:50:14Z</time></trkpt><trkpt lat="43.758264072303284" lon="2.7619522966567738"><ele>598.5</ele><time>2026-04-02T09:50:15Z</time></trkpt><trkpt lat="43.75829537637152" lon="2.7620989995358785"><ele>599.25</ele><time>2026-04-02T09:50:16Z</time></trkpt><trkpt lat="43.758354204763705" lon="2.76224350601856"><ele>600.0</ele><time>2026-04-02T09:50:17Z</time></trkpt><trkpt lat="43.758423495688895" lon="2.762394608113006"><ele>600.0</ele><time>2026-04-02T09:50:18Z</time></trkpt><trkpt lat="43.75848498894147" lon="2.762567210894951"><ele>600.0</ele><time>2026-04-02T09:50:19Z</time></trkpt><trkpt lat="43.7585085518305" lon="2.762763529054685"><ele>600.0</ele><time>2026-04-02T09:50:20Z</time></trkpt><trkpt lat="43.7584860801891" lon="2.762975583304479"><ele>600.0</ele><time>2026-04-02T09:50:21Z</time></trkpt><trkpt lat="43.75844673494238" lon="2.7631936199654348"><ele>600.3333333333334</ele><time>2026-04-02T09:50:22Z</time></trkpt><trkpt lat="43.75840683789659" lon="2.763430698218535"><ele>600.6666666666667</ele><time>2026-04-02T09:50:23Z</time></trkpt><trkpt lat="43.75837416557596" lon="2.7636742862222077"><ele>601.0</ele><time>2026-04-02T09:50:24Z</time></trkpt><trkpt lat="43.75834317389966" lon="2.7639050411411423"><ele>597.6666666666667</ele><time>2026-04-02T09:50:25Z</time></trkpt><trkpt lat="43.75830050104198" lon="2.7641184854342318"><ele>594.3333333333334</ele><time>2026-04-02T09:50:26Z</time></trkpt><trkpt lat="43.75824864282838" lon="2.7643254567180158"><ele>591.0</ele><time>2026-04-02T09:50:27Z</time></trkpt><trkpt lat="43.75815322372773" lon="2.7644922143673827"><ele>583.6666666666666</ele><time>2026-04-02T09:50:28Z</time></trkpt><trkpt lat="43.758042851741024" lon="2.7646371629378628"><ele>576.3333333333333</ele><time>2026-04-02T09:50:29Z</time></trkpt><trkpt lat="43.757914571534386" lon="2.764757465785603"><ele>569.0</ele><time>2026-04-02T09:50:30Z</time></trkpt><trkpt lat="43.757780775317244" lon="2.7648849554910173"><ele>569.3333333333333</ele><time>2026-04-02T09:50:31Z</time></trkpt><trkpt lat="43.757633871231384" lon="2.765016298659034"><ele>569.6666666666666</ele><time>2026-04-02T09:50:32Z</time></trkpt><trkpt lat="43.75749402439294" lon="2.7651256814295815"><ele>570.0</ele><time>2026-04-02T09:50:33Z</time></trkpt><trkpt lat="43.75735174763094" lon="2.765199235017483"><ele>570.0</ele><time>2026-04-02T09:50:34Z</time></trkpt><trkpt lat="43.75720972928285" lon="2.7652037097280133"><ele>570.0</ele><time>2026-04-02T09:50:35Z</time></trkpt><trkpt lat="43.757080742445105" lon="2.7651875463951527"><ele>570.0</ele><time>2026-04-02T09:50:36Z</time></trkpt><trkpt lat="43.75691425175146" lon="2.7652006543064185"><ele>570.0</ele><time>2026-04-02T09:50:37Z</time></trkpt><trkpt lat="43.756739646263874" lon="2.765152437739082"><ele>578.0</ele><time>2026-04-02T09:50:38Z</time></trkpt><trkpt lat="43.75655695028334" lon="2.7651478794863698"><ele>586.0</ele><time>2026-04-02T09:50:39Z</time></trkpt><trkpt lat="43.75638593934046" lon="2.7651597091087785"><ele>594.0</ele><time>2026-04-02T09:50:40Z</time></trkpt><trkpt lat="43.75624065012325" lon="2.765170417363492"><ele>589.25</ele><time>2026-04-02T09:50:41Z</time></trkpt><trkpt lat="43.7561158547922" lon="2.7652191216513913"><ele>584.5</ele><time>2026-04-02T09:50:42Z</time></trkpt><trkpt lat="43.75601030667085" lon="2.7653346090793893"><ele>579.75</ele><time>2026-04-02T09:50:43Z</time></trkpt><trkpt lat="43.7559363130028" lon="2.765516013629183"><ele>575.0</ele><time>2026-04-02T09:50:44Z</time></trkpt><trkpt lat="43.75589251455838" lon="2.7657458109846202"><ele>575.0</ele><time>2026-04-02T09:50:45Z</time></trkpt><trkpt lat="43.755881682635525" lon="2.7659474014332237"><ele>575.0</ele><time>2026-04-02T09:50:46Z</time></trkpt><trkpt lat="43.755901617561044" lon="2.766129513793955"><ele>575.0</ele><time>2026-04-02T09:50:47Z</time></trkpt><trkpt lat="43.75594848802098" lon="2.766286636720541"><ele>575.0</ele><time>2026-04-02T09:50:48Z</time></trkpt><trkpt lat="43.75604277495472" lon="2.7664071824723986"><ele>576.25</ele><time>2026-04-02T09:50:49Z</time></trkpt><trkpt lat="43.75618666839926" lon="2.76652154106897"><ele>577.5</ele><time>2026-04-02T09:50:50Z</time></trkpt><trkpt lat="43.75632011677582" lon="2.766569298427258"><ele>578.75</ele><time>2026-04-02T09:50:51Z</time></trkpt><trkpt lat="43.75645212903352" lon="2.766585907276886"><ele>580.0</ele><time>2026-04-02T09:50:52Z</time></trkpt><trkpt lat="43.75657558213458" lon="2.766598830136221"><ele>580.0</ele><time>2026-04-02T09:50:53Z</time></trkpt><trkpt lat="43.756704274252975" lon="2.76661808793544"><ele>580.0</ele><time>2026-04-02T09:50:54Z</time></trkpt><trkpt lat="43.756840132854826" lon="2.766633158366373"><ele>580.0</ele><time>2026-04-02T09:50:55Z</time></trkpt><trkpt lat="43.75696680472473" lon="2.766652798900076"><ele>580.0</ele><time>2026-04-02T09:50:56Z</time></trkpt><trkpt lat="43.757073061623075" lon="2.766687349028205"><ele>579.4</ele><time>2026-04-02T09:50:57Z</time></trkpt><trkpt lat="43.75714468749185" lon="2.766748906437296"><ele>578.8</ele><time>2026-04-02T09:50:58Z</time></trkpt><trkpt lat="43.757185527411565" lon="2.766867421724195"><ele>578.2</ele><time>2026-04-02T09:50:59Z</time></trkpt><trkpt lat="43.75720384343784" lon="2.7670142421914674"><ele>577.6</ele><time>2026-04-02T09:51:00Z</time></trkpt><trkpt lat="43.757206780911005" lon="2.7671791950787923"><ele>577.0</ele><time>2026-04-02T09:51:01Z</time></trkpt><trkpt lat="43.757236753986426" lon="2.7673267242176354"><ele>577.0</ele><time>2026-04-02T09:51:02Z</time></trkpt><trkpt lat="43.75731531809219" lon="2.767437777934015"><ele>577.0</ele><time>2026-04-02T09:51:03Z</time></trkpt><trkpt lat="43.757436208987905" lon="2.7674911516266443"><ele>577.0</ele><time>2026-04-02T09:51:04Z</time></trkpt><trkpt lat="43.75756242724759" lon="2.767488250204055"><ele>577.0</ele><time>2026-04-02T09:51:05Z</time></trkpt><trkpt lat="43.75767853051096" lon="2.767416928176772"><ele>584.0</ele><time>2026-04-02T09:51:06Z</time></trkpt><trkpt lat="43.75777902211838" lon="2.767274897813473"><ele>591.0</ele><time>2026-04-02T09:51:07Z</time></trkpt><trkpt lat="43.75785093747008" lon="2.767094754560435"><ele>598.0</ele><time>2026-04-02T09:51:08Z</time></trkpt><trkpt lat="43.7579117800028" lon="2.766890735903883"><ele>594.0</ele><time>2026-04-02T09:51:09Z</time></trkpt><trkpt lat="43.757974064089105" lon="2.7667104162500413"><ele>590.0</ele><time>2026-04-02T09:51:10Z</time></trkpt><trkpt lat="43.75806678555252" lon="2.7666009610877254"><ele>586.0</ele><time>2026-04-02T09:51:11Z</time></trkpt><trkpt lat="43.758174408178476" lon="2.766514414135097"><ele>582.0</ele><time>2026-04-02T09:51:12Z</time></trkpt><trkpt lat="43.75825350272862" lon="2.7664227240986023"><ele>582.0</ele><time>2026-04-02T09:51:13Z</time></trkpt><trkpt lat="43.75832932581345" lon="2.766369434226025"><ele>582.0</ele><time>2026-04-02T09:51:14Z</time></trkpt><trkpt lat="43.758397343003146" lon="2.766325778334333"><ele>582.0</ele><time>2026-04-02T09:51:15Z</time></trkpt><trkpt lat="43.758466206025716" lon="2.766289638492984"><ele>582.0</ele><time>2026-04-02T09:51:16Z</time></trkpt><trkpt lat="43.7585548723902" lon="2.76623646321101"><ele>582.0</ele><time>2026-04-02T09:51:17Z</time></trkpt><trkpt lat="43.75866806324056" lon="2.766155832617411"><ele>584.0</ele><time>2026-04-02T09:51:18Z</time></trkpt><trkpt lat="43.75878132711518" lon="2.7660663349131838"><ele>586.0</ele><time>2026-04-02T09:51:19Z</time></trkpt><trkpt lat="43.75887491207684" lon="2.7659862057380495"><ele>588.0</ele><time>2026-04-02T09:51:20Z</time></trkpt><trkpt lat="43.7589751957535" lon="2.7659152009032604"><ele>590.0</ele><time>2026-04-02T09:51:21Z</time></trkpt><trkpt lat="43.759078725418256" lon="2.765854125587725"><ele>590.0</ele><time>2026-04-02T09:51:22Z</time></trkpt><trkpt lat="43.75917521453463" lon="2.765807235453242"><ele>590.0</ele><time>2026-04-02T09:51:23Z</time></trkpt><trkpt lat="43.7592555754777" lon="2.765759906953952"><ele>590.0</ele><time>2026-04-02T09:51:24Z</time></trkpt><trkpt lat="43.75931521610001" lon="2.7656919161377997"><ele>590.0</ele><time>2026-04-02T09:51:25Z</time></trkpt><trkpt lat="43.75935108977473" lon="2.765602613931279"><ele>590.0</ele><time>2026-04-02T09:51:26Z</time></trkpt><trkpt lat="43.759382982798684" lon="2.765499926156311"><ele>590.0</ele><time>2026-04-02T09:51:27Z</time></trkpt><trkpt lat="43.7594388510773" lon="2.765408017847001"><ele>591.6666666666666</ele><time>2026-04-02T09:51:28Z</time></trkpt><trkpt lat="43.759472291561785" lon="2.7652902235196173"><ele>593.3333333333333</ele><time>2026-04-02T09:51:29Z</time></trkpt><trkpt lat="43.7595232580299" lon="2.765190406202613"><ele>595.0</ele><time>2026-04-02T09:51:30Z</time></trkpt><trkpt lat="43.75956834828264" lon="2.7651059998763308"><ele>596.6666666666666</ele><time>2026-04-02T09:51:31Z</time></trkpt><trkpt lat="43.75960591136305" lon="2.7650211192608953"><ele>598.3333333333334</ele><time>2026-04-02T09:51:32Z</time></trkpt><trkpt lat="43.759658504981786" lon="2.764939993851183"><ele>600.0</ele><time>2026-04-02T09:51:33Z</time></trkpt><trkpt lat="43.75969548036755" lon="2.764851747372962"><ele>600.0</ele><time>2026-04-02T09:51:34Z</time></trkpt><trkpt lat="43.75972773221882" lon="2.764775876470447"><ele>600.0</ele><time>2026-04-02T09:51:35Z</time></trkpt><trkpt lat="43.75978211348312" lon="2.764665119210641"><ele>600.0</ele><time>2026-04-02T09:51:37Z</time></trkpt><trkpt lat="43.7598595865774" lon="2.764571634147679"><ele>600.0</ele><time>2026-04-02T09:51:39Z</time></trkpt><trkpt lat="43.759928459620824" lon="2.764584670818063"><ele>600.0</ele><time>2026-04-02T09:51:41Z</time></trkpt><trkpt lat="43.76000598940483" lon="2.764580313697818"><ele>600.0</ele><time>2026-04-02T09:51:43Z</time></trkpt><trkpt lat="43.76007847196462" lon="2.7644825763903054"><ele>600.0</ele><time>2026-04-02T09:51:45Z</time></trkpt><trkpt lat="43.76011837086825" lon="2.764400405970547"><ele>600.0</ele><time>2026-04-02T09:51:47Z</time></trkpt><trkpt lat="43.76013782116943" lon="2.7642997112804695"><ele>600.0</ele><time>2026-04-02T09:51:49Z</time></trkpt><trkpt lat="43.760189310298706" lon="2.7642072561263706"><ele>600.0</ele><time>2026-04-02T09:51:53Z</time></trkpt><trkpt lat="43.760223241850426" lon="2.7641231504325683"><ele>600.0</ele><time>2026-04-02T09:51:56Z</time></trkpt><trkpt lat="43.7602861130517" lon="2.764072584282911"><ele>600.0</ele><time>2026-04-02T09:51:58Z</time></trkpt><trkpt lat="43.760384730535" lon="2.7641538959057503"><ele>599.4</ele><time>2026-04-02T09:52:00Z</time></trkpt><trkpt lat="43.76044875500038" lon="2.7642037167260787"><ele>598.8</ele><time>2026-04-02T09:52:01Z</time></trkpt><trkpt lat="43.76052380268291" lon="2.764251084780788"><ele>598.2</ele><time>2026-04-02T09:52:02Z</time></trkpt><trkpt lat="43.760602413340514" lon="2.7643170774892165"><ele>597.6</ele><time>2026-04-02T09:52:03Z</time></trkpt><trkpt lat="43.76065985073336" lon="2.764435588487556"><ele>597.0</ele><time>2026-04-02T09:52:04Z</time></trkpt><trkpt lat="43.76072852008131" lon="2.7645600437156364"><ele>597.0</ele><time>2026-04-02T09:52:05Z</time></trkpt><trkpt lat="43.760810711646165" lon="2.764692016359239"><ele>597.0</ele><time>2026-04-02T09:52:06Z</time></trkpt><trkpt lat="43.760885536074916" lon="2.7648517050063375"><ele>597.0</ele><time>2026-04-02T09:52:07Z</time></trkpt><trkpt lat="43.76096401936383" lon="2.765017090162456"><ele>597.0</ele><time>2026-04-02T09:52:08Z</time></trkpt><trkpt lat="43.76103822671085" lon="2.7651765128953736"><ele>589.6666666666666</ele><time>2026-04-02T09:52:09Z</time></trkpt><trkpt lat="43.76111729563201" lon="2.7653658694945826"><ele>582.3333333333333</ele><time>2026-04-02T09:52:10Z</time></trkpt><trkpt lat="43.76121118221567" lon="2.7655503783235864"><ele>575.0</ele><time>2026-04-02T09:52:11Z</time></trkpt><trkpt lat="43.76129940457591" lon="2.7657458131893224"><ele>575.0</ele><time>2026-04-02T09:52:12Z</time></trkpt><trkpt lat="43.761388021027884" lon="2.765936125710712"><ele>575.0</ele><time>2026-04-02T09:52:13Z</time></trkpt><trkpt lat="43.761476055585135" lon="2.7661263528088593"><ele>575.0</ele><time>2026-04-02T09:52:14Z</time></trkpt><trkpt lat="43.76155868097178" lon="2.7663176186244547"><ele>578.6666666666666</ele><time>2026-04-02T09:52:15Z</time></trkpt><trkpt lat="43.76164058702353" lon="2.7665063844743414"><ele>582.3333333333334</ele><time>2026-04-02T09:52:16Z</time></trkpt><trkpt lat="43.76171889160337" lon="2.766679542927863"><ele>586.0</ele><time>2026-04-02T09:52:17Z</time></trkpt><trkpt lat="43.76179401016848" lon="2.766860331122166"><ele>588.75</ele><time>2026-04-02T09:52:18Z</time></trkpt><trkpt lat="43.76185946802676" lon="2.767038098727016"><ele>591.5</ele><time>2026-04-02T09:52:19Z</time></trkpt><trkpt lat="43.7618974239562" lon="2.76721773862103"><ele>594.25</ele><time>2026-04-02T09:52:20Z</time></trkpt><trkpt lat="43.761953192898524" lon="2.767377363468454"><ele>597.0</ele><time>2026-04-02T09:52:21Z</time></trkpt><trkpt lat="43.76198966777667" lon="2.767502604473378"><ele>591.8000000000001</ele><time>2026-04-02T09:52:22Z</time></trkpt><trkpt lat="43.7620205481672" lon="2.767592067818858"><ele>586.6</ele><time>2026-04-02T09:52:23Z</time></trkpt><trkpt lat="43.76205887183941" lon="2.76767436476927"><ele>581.4000000000001</ele><time>2026-04-02T09:52:24Z</time></trkpt><trkpt lat="43.76214275666556" lon="2.7677014215396007"><ele>576.2</ele><time>2026-04-02T09:52:25Z</time></trkpt><trkpt lat="43.76222276990858" lon="2.7677709900516025"><ele>571.0</ele><time>2026-04-02T09:52:26Z</time></trkpt><trkpt lat="43.762302566585184" lon="2.7679234422941277"><ele>571.0</ele><time>2026-04-02T09:52:27Z</time></trkpt><trkpt lat="43.762389817365616" lon="2.768129150975197"><ele>571.0</ele><time>2026-04-02T09:52:28Z</time></trkpt><trkpt lat="43.762469132971475" lon="2.768380174580976"><ele>571.0</ele><time>2026-04-02T09:52:29Z</time></trkpt><trkpt lat="43.76254940134068" lon="2.7686386454399194"><ele>571.6666666666667</ele><time>2026-04-02T09:52:30Z</time></trkpt><trkpt lat="43.76264392242301" lon="2.768907816721516"><ele>572.3333333333334</ele><time>2026-04-02T09:52:31Z</time></trkpt><trkpt lat="43.76270737525182" lon="2.7691655336979464"><ele>573.0</ele><time>2026-04-02T09:52:32Z</time></trkpt><trkpt lat="43.762725716616906" lon="2.7694133893326973"><ele>573.3333333333334</ele><time>2026-04-02T09:52:33Z</time></trkpt><trkpt lat="43.76274764710827" lon="2.769682697294272"><ele>573.6666666666667</ele><time>2026-04-02T09:52:34Z</time></trkpt><trkpt lat="43.76276759075473" lon="2.769983551458953"><ele>574.0</ele><time>2026-04-02T09:52:35Z</time></trkpt><trkpt lat="43.762801595088156" lon="2.7702681766326474"><ele>573.25</ele><time>2026-04-02T09:52:36Z</time></trkpt><trkpt lat="43.76281662139094" lon="2.7704952181654057"><ele>572.5</ele><time>2026-04-02T09:52:37Z</time></trkpt><trkpt lat="43.762837116912564" lon="2.7706947642829793"><ele>571.75</ele><time>2026-04-02T09:52:38Z</time></trkpt><trkpt lat="43.76287783118611" lon="2.7708780576620717"><ele>571.0</ele><time>2026-04-02T09:52:39Z</time></trkpt><trkpt lat="43.76295477074419" lon="2.7710661380921184"><ele>570.0</ele><time>2026-04-02T09:52:40Z</time></trkpt><trkpt lat="43.7630538218168" lon="2.771238555415593"><ele>569.0</ele><time>2026-04-02T09:52:41Z</time></trkpt><trkpt lat="43.763134984243734" lon="2.7713853115037526"><ele>568.0</ele><time>2026-04-02T09:52:42Z</time></trkpt><trkpt lat="43.76318418514409" lon="2.771488321487038"><ele>567.0</ele><time>2026-04-02T09:52:43Z</time></trkpt><trkpt lat="43.76329832318428" lon="2.7715298930236365"><ele>567.0</ele><time>2026-04-02T09:52:45Z</time></trkpt><trkpt lat="43.76340412653752" lon="2.7715141942786023"><ele>567.0</ele><time>2026-04-02T09:52:46Z</time></trkpt><trkpt lat="43.76353258703603" lon="2.7715671704951585"><ele>567.0</ele><time>2026-04-02T09:52:47Z</time></trkpt><trkpt lat="43.76367334101342" lon="2.771594690556127"><ele>567.0</ele><time>2026-04-02T09:52:48Z</time></trkpt><trkpt lat="43.76380282626836" lon="2.7716776282358357"><ele>570.2</ele><time>2026-04-02T09:52:49Z</time></trkpt><trkpt lat="43.763899611102495" lon="2.771740108892901"><ele>573.4000000000001</ele><time>2026-04-02T09:52:50Z</time></trkpt><trkpt lat="43.76392995118271" lon="2.771861839276374"><ele>576.5999999999999</ele><time>2026-04-02T09:52:51Z</time></trkpt><trkpt lat="43.76389105833434" lon="2.7719997267965497"><ele>579.8</ele><time>2026-04-02T09:52:52Z</time></trkpt><trkpt lat="43.76390761004346" lon="2.7721308626388392"><ele>583.0</ele><time>2026-04-02T09:52:53Z</time></trkpt><trkpt lat="43.763911245953246" lon="2.772313779819253"><ele>585.0</ele><time>2026-04-02T09:52:54Z</time></trkpt><trkpt lat="43.763897914292784" lon="2.7724732668585386"><ele>587.0</ele><time>2026-04-02T09:52:55Z</time></trkpt><trkpt lat="43.76391652792596" lon="2.772703652250837"><ele>589.0</ele><time>2026-04-02T09:52:56Z</time></trkpt><trkpt lat="43.763955209004855" lon="2.772977442925098"><ele>589.3333333333334</ele><time>2026-04-02T09:52:57Z</time></trkpt><trkpt lat="43.763999911375855" lon="2.7732447152448474"><ele>589.6666666666666</ele><time>2026-04-02T09:52:58Z</time></trkpt><trkpt lat="43.76402269650498" lon="2.7734860610295793"><ele>590.0</ele><time>2026-04-02T09:52:59Z</time></trkpt><trkpt lat="43.76402528519608" lon="2.7737467274683274"><ele>589.0</ele><time>2026-04-02T09:53:00Z</time></trkpt><trkpt lat="43.76404378834825" lon="2.7740190338101804"><ele>588.0</ele><time>2026-04-02T09:53:01Z</time></trkpt><trkpt lat="43.76409316860446" lon="2.7742577939908206"><ele>587.0</ele><time>2026-04-02T09:53:02Z</time></trkpt><trkpt lat="43.7641416429869" lon="2.774461971675122"><ele>588.25</ele><time>2026-04-02T09:53:03Z</time></trkpt><trkpt lat="43.76421384513727" lon="2.774614855504285"><ele>589.5</ele><time>2026-04-02T09:53:04Z</time></trkpt><trkpt lat="43.76430275569339" lon="2.7747153435405947"><ele>590.75</ele><time>2026-04-02T09:53:05Z</time></trkpt><trkpt lat="43.76440230584446" lon="2.7747500400710794"><ele>592.0</ele><time>2026-04-02T09:53:06Z</time></trkpt><trkpt lat="43.76451990950658" lon="2.7747271102936644"><ele>592.0</ele><time>2026-04-02T09:53:07Z</time></trkpt><trkpt lat="43.76465712498516" lon="2.774654306862241"><ele>592.0</ele><time>2026-04-02T09:53:08Z</time></trkpt><trkpt lat="43.76480588858583" lon="2.774638872670944"><ele>592.0</ele><time>2026-04-02T09:53:09Z</time></trkpt><trkpt lat="43.764982003756515" lon="2.7746692453157165"><ele>592.0</ele><time>2026-04-02T09:53:10Z</time></trkpt><trkpt lat="43.76514637158221" lon="2.774731916183576"><ele>592.0</ele><time>2026-04-02T09:53:11Z</time></trkpt><trkpt lat="43.765317954881574" lon="2.774832516036022"><ele>592.0</ele><time>2026-04-02T09:53:12Z</time></trkpt><trkpt lat="43.76548047875937" lon="2.774981529522352"><ele>598.0</ele><time>2026-04-02T09:53:13Z</time></trkpt><trkpt lat="43.765632146736806" lon="2.775181260020315"><ele>604.0</ele><time>2026-04-02T09:53:14Z</time></trkpt><trkpt lat="43.765791342777426" lon="2.7753875012725544"><ele>610.0</ele><time>2026-04-02T09:53:15Z</time></trkpt><trkpt lat="43.765942695365176" lon="2.775573849408288"><ele>610.0</ele><time>2026-04-02T09:53:16Z</time></trkpt><trkpt lat="43.766027869153035" lon="2.775815629798808"><ele>610.0</ele><time>2026-04-02T09:53:17Z</time></trkpt><trkpt lat="43.76611179624848" lon="2.7760703721552513"><ele>610.0</ele><time>2026-04-02T09:53:18Z</time></trkpt><trkpt lat="43.76620355893793" lon="2.776355663979458"><ele>613.6666666666667</ele><time>2026-04-02T09:53:19Z</time></trkpt><trkpt lat="43.76627876402362" lon="2.7766458864779078"><ele>617.3333333333334</ele><time>2026-04-02T09:53:20Z</time></trkpt><trkpt lat="43.7663495972353" lon="2.7769403834634954"><ele>621.0</ele><time>2026-04-02T09:53:21Z</time></trkpt><trkpt lat="43.76639960234694" lon="2.7772047022651463"><ele>621.0</ele><time>2026-04-02T09:53:22Z</time></trkpt><trkpt lat="43.766441210474454" lon="2.77742779061834"><ele>621.0</ele><time>2026-04-02T09:53:23Z</time></trkpt><trkpt lat="43.766479759556354" lon="2.777629385794555"><ele>621.0</ele><time>2026-04-02T09:53:24Z</time></trkpt><trkpt lat="43.766523754507844" lon="2.777788378825751"><ele>621.0</ele><time>2026-04-02T09:53:25Z</time></trkpt><trkpt lat="43.766585839657004" lon="2.777874425811508"><ele>619.5</ele><time>2026-04-02T09:53:26Z</time></trkpt><trkpt lat="43.766667433935716" lon="2.7779167228561574"><ele>618.0</ele><time>2026-04-02T09:53:27Z</time></trkpt><trkpt lat="43.76673678079037" lon="2.7779410731916716"><ele>616.5</ele><time>2026-04-02T09:53:28Z</time></trkpt><trkpt lat="43.766855175936584" lon="2.777897248838534"><ele>615.0</ele><time>2026-04-02T09:53:30Z</time></trkpt><trkpt lat="43.766915995067926" lon="2.777859383101898"><ele>613.5</ele><time>2026-04-02T09:53:31Z</time></trkpt><trkpt lat="43.76699206401752" lon="2.7777965088664387"><ele>612.0</ele><time>2026-04-02T09:53:32Z</time></trkpt><trkpt lat="43.76707856823013" lon="2.777721893262441"><ele>617.75</ele><time>2026-04-02T09:53:33Z</time></trkpt><trkpt lat="43.767178379560875" lon="2.777650164465043"><ele>623.5</ele><time>2026-04-02T09:53:34Z</time></trkpt><trkpt lat="43.76730045893366" lon="2.777585789586998"><ele>629.25</ele><time>2026-04-02T09:53:35Z</time></trkpt><trkpt lat="43.76743845328143" lon="2.7775104236131627"><ele>635.0</ele><time>2026-04-02T09:53:36Z</time></trkpt><trkpt lat="43.76759299312937" lon="2.7774114277785666"><ele>634.3333333333333</ele><time>2026-04-02T09:53:37Z</time></trkpt><trkpt lat="43.767763043632534" lon="2.7773232711642915"><ele>633.6666666666666</ele><time>2026-04-02T09:53:38Z</time></trkpt><trkpt lat="43.76793264865107" lon="2.7772459573189137"><ele>633.0</ele><time>2026-04-02T09:53:39Z</time></trkpt><trkpt lat="43.76810390013045" lon="2.7771684039874702"><ele>633.0</ele><time>2026-04-02T09:53:40Z</time></trkpt><trkpt lat="43.768279156397796" lon="2.7771244764542735"><ele>633.0</ele><time>2026-04-02T09:53:41Z</time></trkpt><trkpt lat="43.768444387568266" lon="2.7770730263873946"><ele>633.0</ele><time>2026-04-02T09:53:42Z</time></trkpt><trkpt lat="43.768614589228044" lon="2.777033700028902"><ele>636.3333333333334</ele><time>2026-04-02T09:53:43Z</time></trkpt><trkpt lat="43.76879513733544" lon="2.77701154610525"><ele>639.6666666666667</ele><time>2026-04-02T09:53:44Z</time></trkpt><trkpt lat="43.76896378464963" lon="2.7770062405263563"><ele>643.0</ele><time>2026-04-02T09:53:45Z</time></trkpt><trkpt lat="43.769118447452335" lon="2.7769886395566794"><ele>643.0</ele><time>2026-04-02T09:53:46Z</time></trkpt><trkpt lat="43.76925207140143" lon="2.77697159538923"><ele>643.0</ele><time>2026-04-02T09:53:47Z</time></trkpt><trkpt lat="43.76937385942304" lon="2.776922062444514"><ele>643.0</ele><time>2026-04-02T09:53:48Z</time></trkpt><trkpt lat="43.769474152277226" lon="2.776830707424752"><ele>643.0</ele><time>2026-04-02T09:53:49Z</time></trkpt><trkpt lat="43.769568824436405" lon="2.7768266135692588"><ele>645.8</ele><time>2026-04-02T09:53:50Z</time></trkpt><trkpt lat="43.769642173327235" lon="2.7768321154902575"><ele>648.5999999999999</ele><time>2026-04-02T09:53:51Z</time></trkpt><trkpt lat="43.7696812967837" lon="2.776968227120549"><ele>651.4000000000001</ele><time>2026-04-02T09:53:52Z</time></trkpt><trkpt lat="43.76977431350179" lon="2.777051110153133"><ele>654.2</ele><time>2026-04-02T09:53:53Z</time></trkpt><trkpt lat="43.76989861374727" lon="2.7771225889366846"><ele>657.0</ele><time>2026-04-02T09:53:54Z</time></trkpt><trkpt lat="43.77000586959326" lon="2.7772500349691955"><ele>657.0</ele><time>2026-04-02T09:53:55Z</time></trkpt><trkpt lat="43.77011069654282" lon="2.7773785529658905"><ele>657.0</ele><time>2026-04-02T09:53:56Z</time></trkpt><trkpt lat="43.77021210485506" lon="2.7775033742454998"><ele>657.0</ele><time>2026-04-02T09:53:57Z</time></trkpt><trkpt lat="43.770315544037366" lon="2.7776067422595125"><ele>657.0</ele><time>2026-04-02T09:53:58Z</time></trkpt><trkpt lat="43.77037132850853" lon="2.777724235817631"><ele>660.1666666666666</ele><time>2026-04-02T09:53:59Z</time></trkpt><trkpt lat="43.77040673443905" lon="2.7778111240478607"><ele>663.3333333333334</ele><time>2026-04-02T09:54:00Z</time></trkpt><trkpt lat="43.770427768883465" lon="2.777912756583241"><ele>666.5</ele><time>2026-04-02T09:54:01Z</time></trkpt><trkpt lat="43.770483057569045" lon="2.7780021971661872"><ele>669.6666666666667</ele><time>2026-04-02T09:54:02Z</time></trkpt><trkpt lat="43.770508669983656" lon="2.7780935283976547"><ele>672.8333333333334</ele><time>2026-04-02T09:54:03Z</time></trkpt><trkpt lat="43.77048887558709" lon="2.7782126235344693"><ele>676.0</ele><time>2026-04-02T09:54:05Z</time></trkpt><trkpt lat="43.77040920237345" lon="2.778273780400487"><ele>676.0</ele><time>2026-04-02T09:54:07Z</time></trkpt><trkpt lat="43.770280383072446" lon="2.7782812369974996"><ele>676.0</ele><time>2026-04-02T09:54:09Z</time></trkpt><trkpt lat="43.770178340562396" lon="2.7782740886526476"><ele>676.0</ele><time>2026-04-02T09:54:10Z</time></trkpt><trkpt lat="43.770071939726996" lon="2.7782837504891678"><ele>676.0</ele><time>2026-04-02T09:54:11Z</time></trkpt><trkpt lat="43.76996040086405" lon="2.7782679596539186"><ele>673.8</ele><time>2026-04-02T09:54:12Z</time></trkpt><trkpt lat="43.76985417417641" lon="2.7782667333829445"><ele>671.5999999999999</ele><time>2026-04-02T09:54:13Z</time></trkpt><trkpt lat="43.76975591434916" lon="2.778289583343655"><ele>669.4</ele><time>2026-04-02T09:54:14Z</time></trkpt><trkpt lat="43.769661346990404" lon="2.7783335030785947"><ele>667.2</ele><time>2026-04-02T09:54:15Z</time></trkpt><trkpt lat="43.769563738061436" lon="2.7784129391374726"><ele>665.0</ele><time>2026-04-02T09:54:16Z</time></trkpt><trkpt lat="43.7694574037645" lon="2.7785242136866084"><ele>667.5</ele><time>2026-04-02T09:54:17Z</time></trkpt><trkpt lat="43.76934703202158" lon="2.7786446425047022"><ele>670.0</ele><time>2026-04-02T09:54:18Z</time></trkpt><trkpt lat="43.76925468831894" lon="2.778753331727797"><ele>672.5</ele><time>2026-04-02T09:54:19Z</time></trkpt><trkpt lat="43.76918597295733" lon="2.77886870580849"><ele>675.0</ele><time>2026-04-02T09:54:20Z</time></trkpt><trkpt lat="43.769140849708535" lon="2.7790037397409466"><ele>675.0</ele><time>2026-04-02T09:54:21Z</time></trkpt><trkpt lat="43.76912432527527" lon="2.7791410968811134"><ele>675.0</ele><time>2026-04-02T09:54:22Z</time></trkpt><trkpt lat="43.76913706905926" lon="2.7792505786489063"><ele>675.0</ele><time>2026-04-02T09:54:23Z</time></trkpt><trkpt lat="43.76917293912196" lon="2.7793496891697296"><ele>675.0</ele><time>2026-04-02T09:54:24Z</time></trkpt><trkpt lat="43.7692144835867" lon="2.7794680060207453"><ele>675.0</ele><time>2026-04-02T09:54:25Z</time></trkpt><trkpt lat="43.76927404355114" lon="2.7795793246681804"><ele>674.5</ele><time>2026-04-02T09:54:26Z</time></trkpt><trkpt lat="43.76933242537679" lon="2.7797070776604498"><ele>674.0</ele><time>2026-04-02T09:54:27Z</time></trkpt><trkpt lat="43.76940942301197" lon="2.7798970879667464"><ele>673.5</ele><time>2026-04-02T09:54:28Z</time></trkpt><trkpt lat="43.76949043782041" lon="2.7800943768910655"><ele>673.0</ele><time>2026-04-02T09:54:29Z</time></trkpt><trkpt lat="43.76959951926695" lon="2.7803157071804576"><ele>682.0</ele><time>2026-04-02T09:54:30Z</time></trkpt><trkpt lat="43.76972130774075" lon="2.78054137488934"><ele>691.0</ele><time>2026-04-02T09:54:31Z</time></trkpt><trkpt lat="43.769836552999834" lon="2.780777740558785"><ele>700.0</ele><time>2026-04-02T09:54:32Z</time></trkpt><trkpt lat="43.76994083285419" lon="2.7810003131287298"><ele>694.0</ele><time>2026-04-02T09:54:33Z</time></trkpt><trkpt lat="43.77004085448097" lon="2.781218360179772"><ele>688.0</ele><time>2026-04-02T09:54:34Z</time></trkpt><trkpt lat="43.77014403212749" lon="2.7814575938550172"><ele>682.0</ele><time>2026-04-02T09:54:35Z</time></trkpt><trkpt lat="43.770233350272456" lon="2.7817058763905678"><ele>695.6666666666667</ele><time>2026-04-02T09:54:36Z</time></trkpt><trkpt lat="43.77031634730361" lon="2.781959056251703"><ele>709.3333333333334</ele><time>2026-04-02T09:54:37Z</time></trkpt><trkpt lat="43.77039611088483" lon="2.782199624596525"><ele>723.0</ele><time>2026-04-02T09:54:38Z</time></trkpt><trkpt lat="43.7704749321728" lon="2.7824245867501087"><ele>723.0</ele><time>2026-04-02T09:54:39Z</time></trkpt><trkpt lat="43.77054462599025" lon="2.782645155980115"><ele>723.0</ele><time>2026-04-02T09:54:40Z</time></trkpt><trkpt lat="43.7706356774117" lon="2.782820880639515"><ele>723.0</ele><time>2026-04-02T09:54:41Z</time></trkpt><trkpt lat="43.770716633871785" lon="2.7829781026838067"><ele>719.0</ele><time>2026-04-02T09:54:42Z</time></trkpt><trkpt lat="43.77081358057906" lon="2.7830874136408754"><ele>715.0</ele><time>2026-04-02T09:54:43Z</time></trkpt><trkpt lat="43.7709141274323" lon="2.7831557142759316"><ele>711.0</ele><time>2026-04-02T09:54:44Z</time></trkpt><trkpt lat="43.77103084252595" lon="2.7831904781567105"><ele>707.0</ele><time>2026-04-02T09:54:45Z</time></trkpt><trkpt lat="43.77115822132976" lon="2.783260917315621"><ele>709.75</ele><time>2026-04-02T09:54:46Z</time></trkpt><trkpt lat="43.77127138997752" lon="2.7833800013053667"><ele>712.5</ele><time>2026-04-02T09:54:47Z</time></trkpt><trkpt lat="43.7713800644378" lon="2.78351452614275"><ele>715.25</ele><time>2026-04-02T09:54:48Z</time></trkpt><trkpt lat="43.77149343002178" lon="2.783636968218612"><ele>718.0</ele><time>2026-04-02T09:54:49Z</time></trkpt><trkpt lat="43.77162841516306" lon="2.7837303065445336"><ele>718.0</ele><time>2026-04-02T09:54:50Z</time></trkpt><trkpt lat="43.77175921059066" lon="2.783862948051151"><ele>718.0</ele><time>2026-04-02T09:54:51Z</time></trkpt><trkpt lat="43.77188991950347" lon="2.7839968508532875"><ele>718.0</ele><time>2026-04-02T09:54:52Z</time></trkpt><trkpt lat="43.77199943526348" lon="2.7841343656861888"><ele>726.8</ele><time>2026-04-02T09:54:53Z</time></trkpt><trkpt lat="43.77207765134763" lon="2.78426430093541"><ele>735.5999999999999</ele><time>2026-04-02T09:54:54Z</time></trkpt><trkpt lat="43.772115982637345" lon="2.7843939169357825"><ele>744.4000000000001</ele><time>2026-04-02T09:54:55Z</time></trkpt><trkpt lat="43.772125353962174" lon="2.784511628177729"><ele>753.2</ele><time>2026-04-02T09:54:56Z</time></trkpt><trkpt lat="43.77210208134063" lon="2.7846350264293767"><ele>762.0</ele><time>2026-04-02T09:54:57Z</time></trkpt><trkpt lat="43.7720639493719" lon="2.784786010903925"><ele>762.0</ele><time>2026-04-02T09:54:58Z</time></trkpt><trkpt lat="43.77202784114312" lon="2.7849608744274663"><ele>762.0</ele><time>2026-04-02T09:54:59Z</time></trkpt><trkpt lat="43.77199860480446" lon="2.785138111472243"><ele>762.0</ele><time>2026-04-02T09:55:00Z</time></trkpt><trkpt lat="43.77197702336498" lon="2.7853429965420897"><ele>762.0</ele><time>2026-04-02T09:55:01Z</time></trkpt><trkpt lat="43.77195323480472" lon="2.785557843765425"><ele>766.0</ele><time>2026-04-02T09:55:02Z</time></trkpt><trkpt lat="43.77192430408055" lon="2.7857840748207234"><ele>770.0</ele><time>2026-04-02T09:55:03Z</time></trkpt><trkpt lat="43.77189325566121" lon="2.786012362116237"><ele>774.0</ele><time>2026-04-02T09:55:04Z</time></trkpt><trkpt lat="43.77186327795946" lon="2.786238216398436"><ele>763.3333333333334</ele><time>2026-04-02T09:55:05Z</time></trkpt><trkpt lat="43.771837259667365" lon="2.786456074427957"><ele>752.6666666666667</ele><time>2026-04-02T09:55:06Z</time></trkpt><trkpt lat="43.77181762783262" lon="2.786669405338215"><ele>742.0</ele><time>2026-04-02T09:55:07Z</time></trkpt><trkpt lat="43.77182682244312" lon="2.7868774531343656"><ele>742.0</ele><time>2026-04-02T09:55:08Z</time></trkpt><trkpt lat="43.771832492015115" lon="2.787080381431817"><ele>742.0</ele><time>2026-04-02T09:55:09Z</time></trkpt><trkpt lat="43.77185795157884" lon="2.7872855975332644"><ele>742.0</ele><time>2026-04-02T09:55:10Z</time></trkpt><trkpt lat="43.77188160720007" lon="2.7875030871712827"><ele>747.0</ele><time>2026-04-02T09:55:11Z</time></trkpt><trkpt lat="43.771922404979335" lon="2.7877065883750296"><ele>752.0</ele><time>2026-04-02T09:55:12Z</time></trkpt><trkpt lat="43.77198448135625" lon="2.7878915444096624"><ele>757.0</ele><time>2026-04-02T09:55:13Z</time></trkpt><trkpt lat="43.77202456698107" lon="2.788079106904484"><ele>762.0</ele><time>2026-04-02T09:55:14Z</time></trkpt><trkpt lat="43.772086105851436" lon="2.7882471884227598"><ele>762.0</ele><time>2026-04-02T09:55:15Z</time></trkpt><trkpt lat="43.772168446861926" lon="2.7883647780446577"><ele>762.0</ele><time>2026-04-02T09:55:16Z</time></trkpt><trkpt lat="43.772243801231866" lon="2.7884507597487254"><ele>762.0</ele><time>2026-04-02T09:55:17Z</time></trkpt><trkpt lat="43.77232593213356" lon="2.7884807422306546"><ele>762.0</ele><time>2026-04-02T09:55:18Z</time></trkpt><trkpt lat="43.772402815922646" lon="2.788464637786125"><ele>762.0</ele><time>2026-04-02T09:55:19Z</time></trkpt><trkpt lat="43.77247584117418" lon="2.7884293604531547"><ele>762.0</ele><time>2026-04-02T09:55:20Z</time></trkpt><trkpt lat="43.77254379709293" lon="2.7883796343064677"><ele>762.0</ele><time>2026-04-02T09:55:21Z</time></trkpt><trkpt lat="43.772616639705404" lon="2.788373733209177"><ele>762.0</ele><time>2026-04-02T09:55:22Z</time></trkpt><trkpt lat="43.772732243206875" lon="2.788318666364159"><ele>762.0</ele><time>2026-04-02T09:55:24Z</time></trkpt><trkpt lat="43.772850166880666" lon="2.7883467708380683"><ele>762.0</ele><time>2026-04-02T09:55:25Z</time></trkpt><trkpt lat="43.772939188295226" lon="2.788302323127251"><ele>764.75</ele><time>2026-04-02T09:55:26Z</time></trkpt><trkpt lat="43.77304358571051" lon="2.7882838870940874"><ele>767.5</ele><time>2026-04-02T09:55:27Z</time></trkpt><trkpt lat="43.773150712975074" lon="2.788251936702638"><ele>770.25</ele><time>2026-04-02T09:55:28Z</time></trkpt><trkpt lat="43.7732727111932" lon="2.7882496722606995"><ele>773.0</ele><time>2026-04-02T09:55:29Z</time></trkpt><trkpt lat="43.77340119130564" lon="2.788261088154353"><ele>773.0</ele><time>2026-04-02T09:55:30Z</time></trkpt><trkpt lat="43.77351894187315" lon="2.7883068825318795"><ele>773.0</ele><time>2026-04-02T09:55:31Z</time></trkpt><trkpt lat="43.773635739353054" lon="2.7883617084565135"><ele>773.0</ele><time>2026-04-02T09:55:32Z</time></trkpt><trkpt lat="43.77374993491045" lon="2.788417684829075"><ele>773.0</ele><time>2026-04-02T09:55:33Z</time></trkpt><trkpt lat="43.77386012075031" lon="2.788466826625053"><ele>773.8</ele><time>2026-04-02T09:55:34Z</time></trkpt><trkpt lat="43.77397266437628" lon="2.7884731818270807"><ele>774.5999999999999</ele><time>2026-04-02T09:55:35Z</time></trkpt><trkpt lat="43.77407850587539" lon="2.788484355878435"><ele>775.4000000000001</ele><time>2026-04-02T09:55:36Z</time></trkpt><trkpt lat="43.77418193788794" lon="2.788471694995576"><ele>776.2</ele><time>2026-04-02T09:55:37Z</time></trkpt><trkpt lat="43.77428590602745" lon="2.7884293728108753"><ele>777.0</ele><time>2026-04-02T09:55:38Z</time></trkpt><trkpt lat="43.77437573219404" lon="2.7883345851991277"><ele>771.75</ele><time>2026-04-02T09:55:39Z</time></trkpt><trkpt lat="43.77444996420011" lon="2.7882098808653146"><ele>766.5</ele><time>2026-04-02T09:55:40Z</time></trkpt><trkpt lat="43.77451419537582" lon="2.7880746183041696"><ele>761.25</ele><time>2026-04-02T09:55:41Z</time></trkpt><trkpt lat="43.77460132644641" lon="2.787962478850303"><ele>756.0</ele><time>2026-04-02T09:55:42Z</time></trkpt><trkpt lat="43.774697084501604" lon="2.787834931903831"><ele>766.0</ele><time>2026-04-02T09:55:43Z</time></trkpt><trkpt lat="43.774812727956466" lon="2.787673728714255"><ele>776.0</ele><time>2026-04-02T09:55:44Z</time></trkpt><trkpt lat="43.77490972378823" lon="2.7875098527065463"><ele>786.0</ele><time>2026-04-02T09:55:45Z</time></trkpt><trkpt lat="43.77500713092722" lon="2.7872867288516194"><ele>786.0</ele><time>2026-04-02T09:55:46Z</time></trkpt><trkpt lat="43.775111496699715" lon="2.7871382149219346"><ele>786.0</ele><time>2026-04-02T09:55:47Z</time></trkpt><trkpt lat="43.77522818302253" lon="2.7870580413602983"><ele>786.0</ele><time>2026-04-02T09:55:48Z</time></trkpt><trkpt lat="43.77537770703749" lon="2.7870103698731605"><ele>786.0</ele><time>2026-04-02T09:55:49Z</time></trkpt><trkpt lat="43.7755407345392" lon="2.7869119395359414"><ele>785.0</ele><time>2026-04-02T09:55:50Z</time></trkpt><trkpt lat="43.77568130724132" lon="2.7868510192766984"><ele>784.0</ele><time>2026-04-02T09:55:51Z</time></trkpt><trkpt lat="43.775803726506155" lon="2.7868323082257147"><ele>783.0</ele><time>2026-04-02T09:55:52Z</time></trkpt><trkpt lat="43.77591302598431" lon="2.786908919943951"><ele>782.0</ele><time>2026-04-02T09:55:53Z</time></trkpt><trkpt lat="43.77603658579249" lon="2.786994741942707"><ele>782.0</ele><time>2026-04-02T09:55:54Z</time></trkpt><trkpt lat="43.77617040590463" lon="2.787102821340562"><ele>782.0</ele><time>2026-04-02T09:55:55Z</time></trkpt><trkpt lat="43.776322197588485" lon="2.7872155603905866"><ele>782.0</ele><time>2026-04-02T09:55:56Z</time></trkpt><trkpt lat="43.77648661154136" lon="2.787288640066721"><ele>782.0</ele><time>2026-04-02T09:55:57Z</time></trkpt><trkpt lat="43.776633329432606" lon="2.7873251670174817"><ele>782.0</ele><time>2026-04-02T09:55:58Z</time></trkpt><trkpt lat="43.77678958355706" lon="2.787296797939805"><ele>782.0</ele><time>2026-04-02T09:55:59Z</time></trkpt><trkpt lat="43.77694304401307" lon="2.787246751126056"><ele>781.0</ele><time>2026-04-02T09:56:00Z</time></trkpt><trkpt lat="43.77706608132687" lon="2.787217399567036"><ele>780.0</ele><time>2026-04-02T09:56:01Z</time></trkpt><trkpt lat="43.77715074407974" lon="2.7871990509255475"><ele>779.0</ele><time>2026-04-02T09:56:02Z</time></trkpt><trkpt lat="43.777247110472246" lon="2.787139745137686"><ele>778.0</ele><time>2026-04-02T09:56:17Z</time></trkpt><trkpt lat="43.77731485262407" lon="2.787071278597354"><ele>777.0</ele><time>2026-04-02T09:56:19Z</time></trkpt><trkpt lat="43.77739421671309" lon="2.7869835693658023"><ele>777.0</ele><time>2026-04-02T09:56:21Z</time></trkpt><trkpt lat="43.777470182668694" lon="2.7868941768634916"><ele>777.0</ele><time>2026-04-02T09:56:23Z</time></trkpt><trkpt lat="43.77754675629693" lon="2.7867724903213618"><ele>777.0</ele><time>2026-04-02T09:56:25Z</time></trkpt><trkpt lat="43.777621684270514" lon="2.7866416375140486"><ele>777.0</ele><time>2026-04-02T09:56:27Z</time></trkpt><trkpt lat="43.777667664243474" lon="2.786560918043049"><ele>777.0</ele><time>2026-04-02T09:56:28Z</time></trkpt><trkpt lat="43.7777041266763" lon="2.786482295459716"><ele>778.2</ele><time>2026-04-02T09:56:29Z</time></trkpt><trkpt lat="43.77775141115269" lon="2.7863874617715587"><ele>779.4000000000001</ele><time>2026-04-02T09:56:30Z</time></trkpt><trkpt lat="43.777825094396135" lon="2.7862427222803325"><ele>780.5999999999999</ele><time>2026-04-02T09:56:31Z</time></trkpt><trkpt lat="43.77789045395405" lon="2.7861439050975916"><ele>781.8</ele><time>2026-04-02T09:56:32Z</time></trkpt><trkpt lat="43.777944540836" lon="2.786069975647826"><ele>783.0</ele><time>2026-04-02T09:56:33Z</time></trkpt><trkpt lat="43.77799619402781" lon="2.785999372866099"><ele>787.0</ele><time>2026-04-02T09:56:34Z</time></trkpt><trkpt lat="43.7780445925675" lon="2.78593245948033"><ele>791.0</ele><time>2026-04-02T09:56:35Z</time></trkpt><trkpt lat="43.77810812381895" lon="2.785832185670144"><ele>795.0</ele><time>2026-04-02T09:56:37Z</time></trkpt><trkpt lat="43.77815763346215" lon="2.7857506313949605"><ele>799.0</ele><time>2026-04-02T09:56:39Z</time></trkpt><trkpt lat="43.778213347013875" lon="2.7856588966458187"><ele>803.0</ele><time>2026-04-02T09:56:40Z</time></trkpt><trkpt lat="43.77826554040635" lon="2.7855741783590986"><ele>807.0</ele><time>2026-04-02T09:56:41Z</time></trkpt><trkpt lat="43.7783216242924" lon="2.785516736179451"><ele>807.0</ele><time>2026-04-02T09:56:42Z</time></trkpt><trkpt lat="43.77837555465175" lon="2.785467995914995"><ele>807.0</ele><time>2026-04-02T09:56:43Z</time></trkpt><trkpt lat="43.7784371259365" lon="2.785412708708198"><ele>807.0</ele><time>2026-04-02T09:56:44Z</time></trkpt><trkpt lat="43.77896667201895" lon="2.7859370158732735"><ele>805.3333333333334</ele><time>2026-04-02T09:56:45Z</time></trkpt><trkpt lat="43.77904015202299" lon="2.7858907006265463"><ele>803.6666666666667</ele><time>2026-04-02T09:56:46Z</time></trkpt><trkpt lat="43.77913992393011" lon="2.7858578223205983"><ele>802.0</ele><time>2026-04-02T09:56:48Z</time></trkpt><trkpt lat="43.77919487409196" lon="2.78590349498698"><ele>800.3333333333334</ele><time>2026-04-02T09:56:49Z</time></trkpt><trkpt lat="43.77923311598507" lon="2.785985551226845"><ele>798.6666666666667</ele><time>2026-04-02T09:56:50Z</time></trkpt><trkpt lat="43.779258518485015" lon="2.7860827955719807"><ele>797.0</ele><time>2026-04-02T09:56:51Z</time></trkpt><trkpt lat="43.77930835358689" lon="2.786191359934643"><ele>799.5</ele><time>2026-04-02T09:56:52Z</time></trkpt><trkpt lat="43.77936418108735" lon="2.786315647127899"><ele>802.0</ele><time>2026-04-02T09:56:53Z</time></trkpt><trkpt lat="43.77943022033177" lon="2.78645744923472"><ele>804.5</ele><time>2026-04-02T09:56:54Z</time></trkpt><trkpt lat="43.77950509571669" lon="2.786592084565809"><ele>807.0</ele><time>2026-04-02T09:56:55Z</time></trkpt><trkpt lat="43.77957564699007" lon="2.7867243579154346"><ele>805.25</ele><time>2026-04-02T09:56:56Z</time></trkpt><trkpt lat="43.77964363013816" lon="2.7868676123643055"><ele>803.5</ele><time>2026-04-02T09:56:57Z</time></trkpt><trkpt lat="43.77970769887188" lon="2.787020574718769"><ele>801.75</ele><time>2026-04-02T09:56:58Z</time></trkpt><trkpt lat="43.77975800361816" lon="2.7871498450570726"><ele>800.0</ele><time>2026-04-02T09:56:59Z</time></trkpt><trkpt lat="43.77980113206947" lon="2.787276501741451"><ele>800.0000000000001</ele><time>2026-04-02T09:57:00Z</time></trkpt><trkpt lat="43.77981450408331" lon="2.787396069513445"><ele>800.0</ele><time>2026-04-02T09:57:01Z</time></trkpt><trkpt lat="43.7798149021573" lon="2.787521651393791"><ele>800.0</ele><time>2026-04-02T09:57:02Z</time></trkpt><trkpt lat="43.77980035439633" lon="2.787638400569487"><ele>800.0</ele><time>2026-04-02T09:57:03Z</time></trkpt><trkpt lat="43.779791516741675" lon="2.7877478965090248"><ele>800.0000000000001</ele><time>2026-04-02T09:57:04Z</time></trkpt><trkpt lat="43.779796304094546" lon="2.787871157579218"><ele>800.0</ele><time>2026-04-02T09:57:05Z</time></trkpt><trkpt lat="43.77980420771093" lon="2.7879917251974873"><ele>797.3333333333334</ele><time>2026-04-02T09:57:06Z</time></trkpt><trkpt lat="43.779810027579096" lon="2.7881169060925006"><ele>794.6666666666667</ele><time>2026-04-02T09:57:07Z</time></trkpt><trkpt lat="43.77982215647268" lon="2.7882090205768937"><ele>792.0</ele><time>2026-04-02T09:57:08Z</time></trkpt><trkpt lat="43.77986095189511" lon="2.788357160765683"><ele>789.3333333333333</ele><time>2026-04-02T09:57:10Z</time></trkpt><trkpt lat="43.779908449514956" lon="2.788478070755419"><ele>786.6666666666666</ele><time>2026-04-02T09:57:12Z</time></trkpt><trkpt lat="43.779914032800704" lon="2.788577061450266"><ele>784.0</ele><time>2026-04-02T09:57:14Z</time></trkpt><trkpt lat="43.77982962743448" lon="2.788698940973779"><ele>780.2</ele><time>2026-04-02T09:57:16Z</time></trkpt><trkpt lat="43.77974918605067" lon="2.7887489792394122"><ele>776.4000000000001</ele><time>2026-04-02T09:57:18Z</time></trkpt><trkpt lat="43.77973786498351" lon="2.7888404550506585"><ele>772.6</ele><time>2026-04-02T09:57:20Z</time></trkpt><trkpt lat="43.779756122481906" lon="2.7889776283459877"><ele>768.8</ele><time>2026-04-02T09:57:22Z</time></trkpt><trkpt lat="43.77970166477049" lon="2.7891381673564575"><ele>765.0</ele><time>2026-04-02T09:57:24Z</time></trkpt><trkpt lat="43.77962085386238" lon="2.7892195811881666"><ele>765.0</ele><time>2026-04-02T09:57:25Z</time></trkpt><trkpt lat="43.77955886347742" lon="2.7892725773246307"><ele>765.0</ele><time>2026-04-02T09:57:26Z</time></trkpt><trkpt lat="43.779485243544954" lon="2.7893349661397804"><ele>765.0</ele><time>2026-04-02T09:57:27Z</time></trkpt><trkpt lat="43.77941155323483" lon="2.7893748513979673"><ele>765.0</ele><time>2026-04-02T09:57:28Z</time></trkpt><trkpt lat="43.77934105736206" lon="2.789443924224624"><ele>765.0</ele><time>2026-04-02T09:57:29Z</time></trkpt><trkpt lat="43.779274012296916" lon="2.789505753274892"><ele>765.0</ele><time>2026-04-02T09:57:30Z</time></trkpt><trkpt lat="43.77919907867721" lon="2.7895675912637574"><ele>762.6</ele><time>2026-04-02T09:57:31Z</time></trkpt><trkpt lat="43.779105826390136" lon="2.789623229407247"><ele>760.2</ele><time>2026-04-02T09:57:32Z</time></trkpt><trkpt lat="43.77900371394077" lon="2.7896774685268406"><ele>757.8</ele><time>2026-04-02T09:57:33Z</time></trkpt><trkpt lat="43.77890341786488" lon="2.7897276247442133"><ele>755.4</ele><time>2026-04-02T09:57:34Z</time></trkpt><trkpt lat="43.77881470008104" lon="2.7897843427869846"><ele>753.0</ele><time>2026-04-02T09:57:35Z</time></trkpt><trkpt lat="43.7787283405464" lon="2.789861571017933"><ele>753.0</ele><time>2026-04-02T09:57:36Z</time></trkpt><trkpt lat="43.778653719649114" lon="2.7899427515488298"><ele>753.0</ele><time>2026-04-02T09:57:37Z</time></trkpt><trkpt lat="43.77858989602281" lon="2.790011514628388"><ele>753.0</ele><time>2026-04-02T09:57:38Z</time></trkpt><trkpt lat="43.77852627745139" lon="2.790077001109083"><ele>753.0</ele><time>2026-04-02T09:57:39Z</time></trkpt><trkpt lat="43.778458222765074" lon="2.790129786305402"><ele>753.0</ele><time>2026-04-02T09:57:40Z</time></trkpt><trkpt lat="43.77838703092135" lon="2.7901639079411136"><ele>753.0</ele><time>2026-04-02T09:57:41Z</time></trkpt><trkpt lat="43.77830413672674" lon="2.7902120494651235"><ele>753.0</ele><time>2026-04-02T09:57:42Z</time></trkpt><trkpt lat="43.778219365295044" lon="2.790273616390646"><ele>753.0</ele><time>2026-04-02T09:57:44Z</time></trkpt><trkpt lat="43.77828439945758" lon="2.790202267767498"><ele>753.0</ele><time>2026-04-02T09:58:36Z</time></trkpt><trkpt lat="43.77835165287507" lon="2.7901572888580293"><ele>753.0</ele><time>2026-04-02T09:58:38Z</time></trkpt><trkpt lat="43.77851338891056" lon="2.7900640830160173"><ele>753.0</ele><time>2026-04-02T09:58:40Z</time></trkpt><trkpt lat="43.778575245987945" lon="2.7900140349937224"><ele>753.0</ele><time>2026-04-02T09:58:41Z</time></trkpt><trkpt lat="43.778631151570075" lon="2.789955771157625"><ele>753.0</ele><time>2026-04-02T09:58:42Z</time></trkpt><trkpt lat="43.778687071048246" lon="2.789899894882365"><ele>753.0</ele><time>2026-04-02T09:58:43Z</time></trkpt><trkpt lat="43.77877462558579" lon="2.7898202946621975"><ele>753.0</ele><time>2026-04-02T09:58:45Z</time></trkpt><trkpt lat="43.77886375191048" lon="2.789742543644914"><ele>753.0</ele><time>2026-04-02T09:58:47Z</time></trkpt><trkpt lat="43.778960639888986" lon="2.7896843777958877"><ele>753.0</ele><time>2026-04-02T09:58:49Z</time></trkpt><trkpt lat="43.77902632506724" lon="2.7896500803226187"><ele>753.0</ele><time>2026-04-02T09:58:50Z</time></trkpt><trkpt lat="43.779096441609084" lon="2.7896135734129666"><ele>753.0</ele><time>2026-04-02T09:58:51Z</time></trkpt><trkpt lat="43.77916157048847" lon="2.7895740910967795"><ele>753.0</ele><time>2026-04-02T09:58:52Z</time></trkpt><trkpt lat="43.77922840818652" lon="2.7895356071429904"><ele>753.0</ele><time>2026-04-02T09:58:53Z</time></trkpt><trkpt lat="43.779285325433456" lon="2.789493922102982"><ele>753.0</ele><time>2026-04-02T09:58:54Z</time></trkpt><trkpt lat="43.77934073976385" lon="2.7894481044358184"><ele>753.0</ele><time>2026-04-02T09:58:55Z</time></trkpt><trkpt lat="43.77940162121106" lon="2.789396257994026"><ele>755.4</ele><time>2026-04-02T09:58:56Z</time></trkpt><trkpt lat="43.77947109048664" lon="2.7893339926792664"><ele>757.8</ele><time>2026-04-02T09:58:57Z</time></trkpt><trkpt lat="43.77952778883423" lon="2.789294086222224"><ele>760.2</ele><time>2026-04-02T09:58:58Z</time></trkpt><trkpt lat="43.77960995189886" lon="2.789234039658069"><ele>762.6</ele><time>2026-04-02T09:59:00Z</time></trkpt><trkpt lat="43.77970411217289" lon="2.7891265026274015"><ele>765.0</ele><time>2026-04-02T09:59:02Z</time></trkpt><trkpt lat="43.77976093005408" lon="2.7890229660120807"><ele>765.0</ele><time>2026-04-02T09:59:04Z</time></trkpt><trkpt lat="43.77978566413984" lon="2.7889126169022282"><ele>765.0</ele><time>2026-04-02T09:59:06Z</time></trkpt><trkpt lat="43.77986009773575" lon="2.7888882461867626"><ele>765.0</ele><time>2026-04-02T09:59:11Z</time></trkpt><trkpt lat="43.77992469215056" lon="2.7889412067292816"><ele>765.0</ele><time>2026-04-02T09:59:15Z</time></trkpt><trkpt lat="43.779997168260614" lon="2.7889841454448034"><ele>765.0</ele><time>2026-04-02T09:59:17Z</time></trkpt><trkpt lat="43.78006868722713" lon="2.7890081439211993"><ele>765.0</ele><time>2026-04-02T09:59:19Z</time></trkpt><trkpt lat="43.78012213658326" lon="2.789056400507179"><ele>765.0</ele><time>2026-04-02T09:59:22Z</time></trkpt><trkpt lat="43.780126108633006" lon="2.789153814140156"><ele>765.0</ele><time>2026-04-02T09:59:24Z</time></trkpt><trkpt lat="43.78010566219691" lon="2.7892589426471526"><ele>765.0</ele><time>2026-04-02T09:59:27Z</time></trkpt><trkpt lat="43.78009062309819" lon="2.7893718578569713"><ele>765.0</ele><time>2026-04-02T09:59:32Z</time></trkpt><trkpt lat="43.78009267861145" lon="2.78948655598278"><ele>765.0</ele><time>2026-04-02T09:59:35Z</time></trkpt><trkpt lat="43.78015319804532" lon="2.789567191869205"><ele>765.0</ele><time>2026-04-02T09:59:38Z</time></trkpt><trkpt lat="43.78021988695202" lon="2.789620528821317"><ele>762.5714285714287</ele><time>2026-04-02T09:59:41Z</time></trkpt><trkpt lat="43.780277813653655" lon="2.7896654593223817"><ele>760.1428571428571</ele><time>2026-04-02T09:59:46Z</time></trkpt><trkpt lat="43.78034342203923" lon="2.7897317193055753"><ele>757.7142857142858</ele><time>2026-04-02T09:59:51Z</time></trkpt><trkpt lat="43.780405494185885" lon="2.7897908800390554"><ele>755.2857142857143</ele><time>2026-04-02T09:59:54Z</time></trkpt><trkpt lat="43.78046340778967" lon="2.7898444666355746"><ele>752.8571428571429</ele><time>2026-04-02T09:59:58Z</time></trkpt><trkpt lat="43.78051924115778" lon="2.789887580307987"><ele>750.4285714285714</ele><time>2026-04-02T10:00:01Z</time></trkpt><trkpt lat="43.780584118815106" lon="2.7899469684213343"><ele>748.0</ele><time>2026-04-02T10:00:04Z</time></trkpt><trkpt lat="43.780654480675956" lon="2.789998045486029"><ele>748.0</ele><time>2026-04-02T10:00:07Z</time></trkpt><trkpt lat="43.780719609193014" lon="2.790029446126334"><ele>748.0</ele><time>2026-04-02T10:00:10Z</time></trkpt><trkpt lat="43.780804533754576" lon="2.79008280609575"><ele>748.0</ele><time>2026-04-02T10:00:12Z</time></trkpt><trkpt lat="43.780869278265925" lon="2.790128028231625"><ele>748.0</ele><time>2026-04-02T10:00:14Z</time></trkpt><trkpt lat="43.78092430780805" lon="2.790170914730654"><ele>748.0</ele><time>2026-04-02T10:00:16Z</time></trkpt><trkpt lat="43.78097399634875" lon="2.790250530570184"><ele>748.0</ele><time>2026-04-02T10:00:20Z</time></trkpt><trkpt lat="43.78096140890793" lon="2.790351193758351"><ele>748.0</ele><time>2026-04-02T10:00:25Z</time></trkpt><trkpt lat="43.7808973551089" lon="2.7903982328804147"><ele>745.5</ele><time>2026-04-02T10:00:33Z</time></trkpt><trkpt lat="43.78082677459264" lon="2.79045303145162"><ele>743.0</ele><time>2026-04-02T10:00:36Z</time></trkpt><trkpt lat="43.78077172740309" lon="2.790524307597658"><ele>740.5</ele><time>2026-04-02T10:00:39Z</time></trkpt><trkpt lat="43.78070789340933" lon="2.790597582707589"><ele>738.0</ele><time>2026-04-02T10:00:42Z</time></trkpt><trkpt lat="43.78064148313128" lon="2.7906485362410547"><ele>735.5</ele><time>2026-04-02T10:00:45Z</time></trkpt><trkpt lat="43.78058108859369" lon="2.790701957236089"><ele>733.0</ele><time>2026-04-02T10:00:48Z</time></trkpt><trkpt lat="43.78050694348693" lon="2.7907676653134064"><ele>733.0</ele><time>2026-04-02T10:00:51Z</time></trkpt><trkpt lat="43.780444214085485" lon="2.790838830588858"><ele>733.0</ele><time>2026-04-02T10:00:54Z</time></trkpt><trkpt lat="43.780393427229995" lon="2.7908969906148826"><ele>733.0</ele><time>2026-04-02T10:00:57Z</time></trkpt><trkpt lat="43.7803385473104" lon="2.7909716353507195"><ele>733.0</ele><time>2026-04-02T10:01:00Z</time></trkpt><trkpt lat="43.78029990978135" lon="2.791056081461538"><ele>733.0</ele><time>2026-04-02T10:01:03Z</time></trkpt><trkpt lat="43.780279278310076" lon="2.7911628750812905"><ele>733.0</ele><time>2026-04-02T10:01:06Z</time></trkpt><trkpt lat="43.780269722596074" lon="2.791269273029488"><ele>731.8571428571428</ele><time>2026-04-02T10:01:09Z</time></trkpt><trkpt lat="43.78025237232704" lon="2.7913569017626974"><ele>730.7142857142857</ele><time>2026-04-02T10:01:12Z</time></trkpt><trkpt lat="43.78022464234987" lon="2.7914402238696177"><ele>729.5714285714286</ele><time>2026-04-02T10:01:16Z</time></trkpt><trkpt lat="43.780177691734885" lon="2.7915141565195056"><ele>728.4285714285713</ele><time>2026-04-02T10:01:21Z</time></trkpt><trkpt lat="43.78011511985802" lon="2.7915746418858114"><ele>727.2857142857143</ele><time>2026-04-02T10:01:25Z</time></trkpt><trkpt lat="43.78005677402644" lon="2.7916484205981584"><ele>726.1428571428571</ele><time>2026-04-02T10:01:29Z</time></trkpt><trkpt lat="43.779992823044346" lon="2.7916972072607535"><ele>725.0</ele><time>2026-04-02T10:01:33Z</time></trkpt><trkpt lat="43.779931262714214" lon="2.7917219500634687"><ele>723.7142857142858</ele><time>2026-04-02T10:01:37Z</time></trkpt><trkpt lat="43.77993411801164" lon="2.7918201992785505"><ele>722.4285714285714</ele><time>2026-04-02T10:01:41Z</time></trkpt><trkpt lat="43.77998374977487" lon="2.791886569324289"><ele>721.1428571428571</ele><time>2026-04-02T10:01:45Z</time></trkpt><trkpt lat="43.78004576236612" lon="2.7918674217559163"><ele>719.8571428571429</ele><time>2026-04-02T10:01:50Z</time></trkpt><trkpt lat="43.78011787492312" lon="2.7918041109341987"><ele>718.5714285714286</ele><time>2026-04-02T10:01:53Z</time></trkpt><trkpt lat="43.780164296380754" lon="2.7917052995896183"><ele>717.2857142857143</ele><time>2026-04-02T10:01:56Z</time></trkpt><trkpt lat="43.78016159491107" lon="2.7916102537370153"><ele>716.0</ele><time>2026-04-02T10:01:58Z</time></trkpt><trkpt lat="43.78017673083148" lon="2.791520437447772"><ele>717.5</ele><time>2026-04-02T10:02:00Z</time></trkpt><trkpt lat="43.780214908632985" lon="2.7914386395380197"><ele>719.0</ele><time>2026-04-02T10:02:02Z</time></trkpt><trkpt lat="43.78024480074527" lon="2.7913496202386896"><ele>720.5</ele><time>2026-04-02T10:02:04Z</time></trkpt><trkpt lat="43.78027360984769" lon="2.7912382357444696"><ele>722.0</ele><time>2026-04-02T10:02:06Z</time></trkpt><trkpt lat="43.7802893525704" lon="2.791122282507892"><ele>723.5</ele><time>2026-04-02T10:02:08Z</time></trkpt><trkpt lat="43.780326142569756" lon="2.7909980916934036"><ele>725.0</ele><time>2026-04-02T10:02:10Z</time></trkpt><trkpt lat="43.7803713244215" lon="2.7908845756729743"><ele>726.3333333333333</ele><time>2026-04-02T10:02:12Z</time></trkpt><trkpt lat="43.780449802313115" lon="2.790813610472492"><ele>727.6666666666666</ele><time>2026-04-02T10:02:14Z</time></trkpt><trkpt lat="43.78052739489441" lon="2.7907332155526396"><ele>729.0</ele><time>2026-04-02T10:02:16Z</time></trkpt><trkpt lat="43.78060614017135" lon="2.7906767566184634"><ele>730.3333333333334</ele><time>2026-04-02T10:02:18Z</time></trkpt><trkpt lat="43.78065805067989" lon="2.790625403320672"><ele>731.6666666666667</ele><time>2026-04-02T10:02:20Z</time></trkpt><trkpt lat="43.78071094134294" lon="2.7905749438555696"><ele>733.0</ele><time>2026-04-02T10:02:34Z</time></trkpt><trkpt lat="43.780778738258384" lon="2.79057205154328"><ele>732.9999999999999</ele><time>2026-04-02T10:03:38Z</time></trkpt><trkpt lat="43.78084650319334" lon="2.790505061814101"><ele>733.0</ele><time>2026-04-02T10:03:42Z</time></trkpt><trkpt lat="43.780910944156794" lon="2.790446778891148"><ele>733.0</ele><time>2026-04-02T10:05:00Z</time></trkpt><trkpt lat="43.78095776563011" lon="2.790384407419571"><ele>733.0</ele><time>2026-04-02T10:05:52Z</time></trkpt><trkpt lat="43.78098234437183" lon="2.7903021123765"><ele>733.0</ele><time>2026-04-02T10:08:17Z</time></trkpt><trkpt lat="43.78095922053369" lon="2.7903881422862153"><ele>732.9999999999999</ele><time>2026-04-02T10:11:09Z</time></trkpt><trkpt lat="43.78100379067224" lon="2.7903242840772022"><ele>733.0</ele><time>2026-04-02T10:13:05Z</time></trkpt><trkpt lat="43.78107031578517" lon="2.7902804275002415"><ele>733.0</ele><time>2026-04-02T10:34:07Z</time></trkpt><trkpt lat="43.78101559726538" lon="2.7902348472226586"><ele>733.0</ele><time>2026-04-02T10:36:01Z</time></trkpt><trkpt lat="43.780936149262494" lon="2.7901726451109505"><ele>733.0</ele><time>2026-04-02T10:54:31Z</time></trkpt><trkpt lat="43.78087165898414" lon="2.7901591397823533"><ele>733.0</ele><time>2026-04-02T10:54:33Z</time></trkpt><trkpt lat="43.78079795735572" lon="2.7900943976692223"><ele>733.0</ele><time>2026-04-02T10:54:35Z</time></trkpt><trkpt lat="43.78069594334955" lon="2.790031893253661"><ele>733.0</ele><time>2026-04-02T10:54:37Z</time></trkpt><trkpt lat="43.780622867569555" lon="2.789972360533883"><ele>735.5</ele><time>2026-04-02T10:54:39Z</time></trkpt><trkpt lat="43.78057111595565" lon="2.789920222524694"><ele>738.0</ele><time>2026-04-02T10:54:41Z</time></trkpt><trkpt lat="43.78050155488346" lon="2.7898705729398143"><ele>740.5</ele><time>2026-04-02T10:54:43Z</time></trkpt><trkpt lat="43.78043169275191" lon="2.7898064264723548"><ele>743.0</ele><time>2026-04-02T10:54:45Z</time></trkpt><trkpt lat="43.78036236701789" lon="2.7897389502581933"><ele>745.5</ele><time>2026-04-02T10:54:47Z</time></trkpt><trkpt lat="43.780310319962034" lon="2.7896803104296928"><ele>748.0</ele><time>2026-04-02T10:54:49Z</time></trkpt><trkpt lat="43.780247843590715" lon="2.7896127486768094"><ele>748.0</ele><time>2026-04-02T10:54:51Z</time></trkpt><trkpt lat="43.78018696499446" lon="2.789583360881663"><ele>748.0</ele><time>2026-04-02T10:54:53Z</time></trkpt><trkpt lat="43.78014868853711" lon="2.789510461162129"><ele>748.0</ele><time>2026-04-02T10:55:42Z</time></trkpt><trkpt lat="43.78012416049805" lon="2.7894230483043487"><ele>748.0</ele><time>2026-04-02T10:57:26Z</time></trkpt><trkpt lat="43.780125840178826" lon="2.7893167612462193"><ele>748.0</ele><time>2026-04-02T10:57:53Z</time></trkpt><trkpt lat="43.780128681657324" lon="2.7891895636649937"><ele>748.0</ele><time>2026-04-02T10:57:56Z</time></trkpt><trkpt lat="43.780141099086144" lon="2.7890762225052184"><ele>748.0</ele><time>2026-04-02T10:57:58Z</time></trkpt><trkpt lat="43.78009121388946" lon="2.7889899431757748"><ele>750.8333333333334</ele><time>2026-04-02T10:58:01Z</time></trkpt><trkpt lat="43.77999791571945" lon="2.7889669487932847"><ele>753.6666666666667</ele><time>2026-04-02T10:58:03Z</time></trkpt><trkpt lat="43.77990143072046" lon="2.7889296628959173"><ele>756.5</ele><time>2026-04-02T10:58:05Z</time></trkpt><trkpt lat="43.77982867727835" lon="2.788891883496125"><ele>759.3333333333334</ele><time>2026-04-02T10:58:06Z</time></trkpt><trkpt lat="43.77978611932686" lon="2.7888164005245626"><ele>762.1666666666666</ele><time>2026-04-02T10:58:08Z</time></trkpt><trkpt lat="43.77973763407556" lon="2.7887529032190983"><ele>765.0</ele><time>2026-04-02T10:58:23Z</time></trkpt><trkpt lat="43.77980421672057" lon="2.7886572076617706"><ele>765.0</ele><time>2026-04-02T10:58:26Z</time></trkpt><trkpt lat="43.77991169165513" lon="2.7886108062451895"><ele>765.0</ele><time>2026-04-02T10:58:28Z</time></trkpt><trkpt lat="43.7799673447819" lon="2.7885463941221262"><ele>765.0</ele><time>2026-04-02T10:58:31Z</time></trkpt><trkpt lat="43.77990783488859" lon="2.7885158822918688"><ele>765.0</ele><time>2026-04-02T10:58:34Z</time></trkpt><trkpt lat="43.779882435961916" lon="2.788610798655809"><ele>765.0</ele><time>2026-04-02T10:58:40Z</time></trkpt><trkpt lat="43.77981786011862" lon="2.788682824491747"><ele>765.0</ele><time>2026-04-02T10:58:42Z</time></trkpt><trkpt lat="43.77975840183818" lon="2.7887333405596837"><ele>765.0000000000001</ele><time>2026-04-02T10:58:44Z</time></trkpt><trkpt lat="43.77975554251332" lon="2.788844636905157"><ele>765.0</ele><time>2026-04-02T10:58:47Z</time></trkpt><trkpt lat="43.77981645404253" lon="2.788884440785899"><ele>765.0</ele><time>2026-04-02T10:58:49Z</time></trkpt><trkpt lat="43.779892825970485" lon="2.7888984061861604"><ele>765.0</ele><time>2026-04-02T10:58:51Z</time></trkpt><trkpt lat="43.779963731697094" lon="2.788913140233303"><ele>765.0</ele><time>2026-04-02T10:58:54Z</time></trkpt><trkpt lat="43.78003611513664" lon="2.788897180574173"><ele>765.0000000000001</ele><time>2026-04-02T10:58:57Z</time></trkpt><trkpt lat="43.780110427353776" lon="2.788883671423215"><ele>765.0</ele><time>2026-04-02T10:59:00Z</time></trkpt><trkpt lat="43.780038089427464" lon="2.7889160796141126"><ele>765.0</ele><time>2026-04-02T11:00:43Z</time></trkpt><trkpt lat="43.779952494144645" lon="2.7889142594016465"><ele>765.0</ele><time>2026-04-02T11:00:45Z</time></trkpt><trkpt lat="43.779880874860964" lon="2.788887219032833"><ele>765.0</ele><time>2026-04-02T11:00:47Z</time></trkpt><trkpt lat="43.77981066991452" lon="2.7888794197130284"><ele>765.0</ele><time>2026-04-02T11:00:49Z</time></trkpt><trkpt lat="43.7797431071995" lon="2.788818034973717"><ele>765.0</ele><time>2026-04-02T11:00:52Z</time></trkpt><trkpt lat="43.779764165490455" lon="2.788727117294369"><ele>765.0</ele><time>2026-04-02T11:00:55Z</time></trkpt><trkpt lat="43.779825085107426" lon="2.7886556715201114"><ele>765.0</ele><time>2026-04-02T11:00:57Z</time></trkpt><trkpt lat="43.77990097461831" lon="2.7886071075825236"><ele>765.0</ele><time>2026-04-02T11:00:59Z</time></trkpt><trkpt lat="43.77993710528956" lon="2.7884965500695067"><ele>765.0</ele><time>2026-04-02T11:01:01Z</time></trkpt><trkpt lat="43.779917859859786" lon="2.7883688611075357"><ele>765.0</ele><time>2026-04-02T11:01:03Z</time></trkpt><trkpt lat="43.77988037062552" lon="2.7882977322340166"><ele>765.0</ele><time>2026-04-02T11:01:04Z</time></trkpt><trkpt lat="43.779842555946765" lon="2.7881755620089264"><ele>765.0</ele><time>2026-04-02T11:01:06Z</time></trkpt><trkpt lat="43.77982222500917" lon="2.7880154977657843"><ele>768.8</ele><time>2026-04-02T11:01:08Z</time></trkpt><trkpt lat="43.779815712329764" lon="2.7878639996816896"><ele>772.6</ele><time>2026-04-02T11:01:10Z</time></trkpt><trkpt lat="43.7798187028648" lon="2.7876929522474545"><ele>776.4000000000001</ele><time>2026-04-02T11:01:12Z</time></trkpt><trkpt lat="43.779821614203456" lon="2.7875358090983537"><ele>780.2</ele><time>2026-04-02T11:01:14Z</time></trkpt><trkpt lat="43.77982603117744" lon="2.7874472360287226"><ele>784.0</ele><time>2026-04-02T11:01:15Z</time></trkpt><trkpt lat="43.77982436228279" lon="2.787306766530161"><ele>786.6666666666666</ele><time>2026-04-02T11:01:17Z</time></trkpt><trkpt lat="43.779786331043425" lon="2.7871557863222245"><ele>789.3333333333333</ele><time>2026-04-02T11:01:19Z</time></trkpt><trkpt lat="43.779763002585746" lon="2.787068773813883"><ele>792.0</ele><time>2026-04-02T11:01:20Z</time></trkpt><trkpt lat="43.7797184577522" lon="2.7869726145243336"><ele>794.6666666666667</ele><time>2026-04-02T11:01:21Z</time></trkpt><trkpt lat="43.77967843845645" lon="2.7868797876322655"><ele>797.3333333333334</ele><time>2026-04-02T11:01:22Z</time></trkpt><trkpt lat="43.77963509040845" lon="2.786780568742828"><ele>800.0</ele><time>2026-04-02T11:01:23Z</time></trkpt><trkpt lat="43.77959268784833" lon="2.7866861191062022"><ele>801.1666666666667</ele><time>2026-04-02T11:01:24Z</time></trkpt><trkpt lat="43.77955498183585" lon="2.786609853994453"><ele>802.3333333333334</ele><time>2026-04-02T11:01:25Z</time></trkpt><trkpt lat="43.77951360344537" lon="2.7865182737161334"><ele>803.5</ele><time>2026-04-02T11:01:26Z</time></trkpt><trkpt lat="43.779466313692026" lon="2.7864338855133703"><ele>804.6666666666667</ele><time>2026-04-02T11:01:27Z</time></trkpt><trkpt lat="43.77940050391765" lon="2.786309638584134"><ele>805.8333333333334</ele><time>2026-04-02T11:01:29Z</time></trkpt><trkpt lat="43.779353132349115" lon="2.7861955541968952"><ele>807.0</ele><time>2026-04-02T11:01:31Z</time></trkpt><trkpt lat="43.779313622683674" lon="2.7861159033634793"><ele>805.0</ele><time>2026-04-02T11:01:33Z</time></trkpt><trkpt lat="43.77927507677997" lon="2.786037077704735"><ele>803.0</ele><time>2026-04-02T11:01:35Z</time></trkpt><trkpt lat="43.779228761525786" lon="2.7859678699365715"><ele>801.0</ele><time>2026-04-02T11:01:37Z</time></trkpt><trkpt lat="43.77917284509706" lon="2.7858703659498274"><ele>799.0</ele><time>2026-04-02T11:01:39Z</time></trkpt><trkpt lat="43.77906974781339" lon="2.7858492254004075"><ele>797.0</ele><time>2026-04-02T11:01:41Z</time></trkpt><trkpt lat="43.77896051328506" lon="2.785937089119685"><ele>797.0000000000001</ele><time>2026-04-02T11:01:43Z</time></trkpt><trkpt lat="43.77890253075372" lon="2.785973430629958"><ele>797.0</ele><time>2026-04-02T11:01:44Z</time></trkpt><trkpt lat="43.7788342951193" lon="2.7859970744964135"><ele>797.0</ele><time>2026-04-02T11:01:45Z</time></trkpt><trkpt lat="43.77875668908673" lon="2.786016759146634"><ele>797.0</ele><time>2026-04-02T11:01:46Z</time></trkpt><trkpt lat="43.778682881160016" lon="2.7860382640820687"><ele>797.0000000000001</ele><time>2026-04-02T11:01:47Z</time></trkpt><trkpt lat="43.77860535624716" lon="2.7860700752503424"><ele>797.0</ele><time>2026-04-02T11:01:48Z</time></trkpt><trkpt lat="43.778527530706164" lon="2.786135805494585"><ele>794.2</ele><time>2026-04-02T11:01:49Z</time></trkpt><trkpt lat="43.778442543684015" lon="2.7862187228449877"><ele>791.4000000000001</ele><time>2026-04-02T11:01:50Z</time></trkpt><trkpt lat="43.77834491559753" lon="2.786290116906109"><ele>788.5999999999999</ele><time>2026-04-02T11:01:51Z</time></trkpt><trkpt lat="43.778247208153616" lon="2.786381252033774"><ele>785.8</ele><time>2026-04-02T11:01:52Z</time></trkpt><trkpt lat="43.77818373621041" lon="2.7864967529446933"><ele>783.0</ele><time>2026-04-02T11:01:53Z</time></trkpt><trkpt lat="43.77809455238025" lon="2.786590605735053"><ele>783.0</ele><time>2026-04-02T11:01:54Z</time></trkpt><trkpt lat="43.778034594331515" lon="2.7866726597760936"><ele>783.0</ele><time>2026-04-02T11:01:55Z</time></trkpt><trkpt lat="43.777977832023886" lon="2.786769577843416"><ele>783.0</ele><time>2026-04-02T11:01:56Z</time></trkpt><trkpt lat="43.77790108105737" lon="2.786831805636501"><ele>783.0</ele><time>2026-04-02T11:01:57Z</time></trkpt><trkpt lat="43.77783722880571" lon="2.7869067643445207"><ele>783.0</ele><time>2026-04-02T11:01:58Z</time></trkpt><trkpt lat="43.77777472766196" lon="2.7869738596908142"><ele>783.0</ele><time>2026-04-02T11:01:59Z</time></trkpt><trkpt lat="43.777708416763645" lon="2.7870277806049053"><ele>782.1428571428571</ele><time>2026-04-02T11:02:00Z</time></trkpt><trkpt lat="43.77764427247434" lon="2.78708355719458"><ele>781.2857142857143</ele><time>2026-04-02T11:02:01Z</time></trkpt><trkpt lat="43.7775832679358" lon="2.787109764178779"><ele>780.4285714285714</ele><time>2026-04-02T11:02:02Z</time></trkpt><trkpt lat="43.7775152578433" lon="2.7871268838591727"><ele>779.5714285714286</ele><time>2026-04-02T11:02:03Z</time></trkpt><trkpt lat="43.777444998493074" lon="2.7871428735743065"><ele>778.7142857142858</ele><time>2026-04-02T11:02:04Z</time></trkpt><trkpt lat="43.77736854382685" lon="2.7871620322319544"><ele>777.8571428571429</ele><time>2026-04-02T11:02:05Z</time></trkpt><trkpt lat="43.777286470170324" lon="2.787183320385431"><ele>777.0</ele><time>2026-04-02T11:02:06Z</time></trkpt><trkpt lat="43.77719427683556" lon="2.787107038224381"><ele>777.0</ele><time>2026-04-02T11:02:07Z</time></trkpt><trkpt lat="43.777297493225724" lon="2.787014491583158"><ele>777.0</ele><time>2026-04-02T11:02:14Z</time></trkpt><trkpt lat="43.77738040504199" lon="2.7869397392316397"><ele>777.0</ele><time>2026-04-02T11:02:15Z</time></trkpt><trkpt lat="43.77745157345587" lon="2.7868457054141595"><ele>777.0</ele><time>2026-04-02T11:02:16Z</time></trkpt><trkpt lat="43.77750921334808" lon="2.786733607822744"><ele>777.0</ele><time>2026-04-02T11:02:17Z</time></trkpt><trkpt lat="43.7775711386227" lon="2.786634591289822"><ele>778.2</ele><time>2026-04-02T11:02:18Z</time></trkpt><trkpt lat="43.77764783120172" lon="2.786547548649375"><ele>779.4000000000001</ele><time>2026-04-02T11:02:19Z</time></trkpt><trkpt lat="43.77770429977005" lon="2.7864341608174206"><ele>780.5999999999999</ele><time>2026-04-02T11:02:20Z</time></trkpt><trkpt lat="43.77775832542994" lon="2.7863194638844955"><ele>781.8</ele><time>2026-04-02T11:02:21Z</time></trkpt><trkpt lat="43.777817049872326" lon="2.786204904756668"><ele>783.0</ele><time>2026-04-02T11:02:22Z</time></trkpt><trkpt lat="43.77788071491351" lon="2.786096672204384"><ele>789.0</ele><time>2026-04-02T11:02:23Z</time></trkpt><trkpt lat="43.777965396871366" lon="2.7859811013826126"><ele>795.0</ele><time>2026-04-02T11:02:24Z</time></trkpt><trkpt lat="43.7780477017184" lon="2.785861100837335"><ele>801.0</ele><time>2026-04-02T11:02:25Z</time></trkpt><trkpt lat="43.778127753324625" lon="2.7857469045132963"><ele>807.0</ele><time>2026-04-02T11:02:26Z</time></trkpt><trkpt lat="43.77820819326912" lon="2.785609097536653"><ele>807.0</ele><time>2026-04-02T11:02:27Z</time></trkpt><trkpt lat="43.77828662844214" lon="2.7854776513374837"><ele>807.0</ele><time>2026-04-02T11:02:28Z</time></trkpt><trkpt lat="43.778375205129564" lon="2.785347268616293"><ele>807.0</ele><time>2026-04-02T11:02:29Z</time></trkpt><trkpt lat="43.77847249750012" lon="2.7852173263545006"><ele>807.0</ele><time>2026-04-02T11:02:30Z</time></trkpt><trkpt lat="43.77856103736166" lon="2.785088080157619"><ele>810.5</ele><time>2026-04-02T11:02:31Z</time></trkpt><trkpt lat="43.778637745775576" lon="2.784949383675729"><ele>814.0</ele><time>2026-04-02T11:02:32Z</time></trkpt><trkpt lat="43.77870102034245" lon="2.7847999951161"><ele>817.5</ele><time>2026-04-02T11:02:33Z</time></trkpt><trkpt lat="43.77874789381202" lon="2.7846472129687116"><ele>821.0</ele><time>2026-04-02T11:02:34Z</time></trkpt><trkpt lat="43.77878408416025" lon="2.7844949687115395"><ele>821.0</ele><time>2026-04-02T11:02:35Z</time></trkpt><trkpt lat="43.778831765202746" lon="2.7843526816472113"><ele>821.0</ele><time>2026-04-02T11:02:36Z</time></trkpt><trkpt lat="43.7789026700465" lon="2.784239028714466"><ele>821.0</ele><time>2026-04-02T11:02:37Z</time></trkpt><trkpt lat="43.778968148373586" lon="2.7841662063278805"><ele>821.0</ele><time>2026-04-02T11:02:38Z</time></trkpt><trkpt lat="43.7790296558744" lon="2.7841246799890853"><ele>821.0</ele><time>2026-04-02T11:02:39Z</time></trkpt><trkpt lat="43.779169561119666" lon="2.7840649969480045"><ele>823.4</ele><time>2026-04-02T11:02:41Z</time></trkpt><trkpt lat="43.779270614846546" lon="2.7840382492280966"><ele>825.8</ele><time>2026-04-02T11:02:42Z</time></trkpt><trkpt lat="43.77937393963733" lon="2.7840144397894098"><ele>828.1999999999999</ele><time>2026-04-02T11:02:43Z</time></trkpt><trkpt lat="43.779470613120075" lon="2.7840002775291506"><ele>830.5999999999999</ele><time>2026-04-02T11:02:44Z</time></trkpt><trkpt lat="43.779569800466106" lon="2.7840261263821793"><ele>833.0</ele><time>2026-04-02T11:02:45Z</time></trkpt><trkpt lat="43.77965447584555" lon="2.7841301433514873"><ele>833.5</ele><time>2026-04-02T11:02:46Z</time></trkpt><trkpt lat="43.77969950826524" lon="2.7842669567796365"><ele>834.0</ele><time>2026-04-02T11:02:47Z</time></trkpt><trkpt lat="43.77977291523265" lon="2.7843820045339447"><ele>834.5</ele><time>2026-04-02T11:02:48Z</time></trkpt><trkpt lat="43.7798530764869" lon="2.7844858853333108"><ele>835.0</ele><time>2026-04-02T11:02:49Z</time></trkpt><trkpt lat="43.77992823243379" lon="2.7846313814305437"><ele>835.0</ele><time>2026-04-02T11:02:50Z</time></trkpt><trkpt lat="43.78002146947668" lon="2.7847968388216557"><ele>835.0</ele><time>2026-04-02T11:02:51Z</time></trkpt><trkpt lat="43.78014224872499" lon="2.7849912239041297"><ele>835.0</ele><time>2026-04-02T11:02:52Z</time></trkpt><trkpt lat="43.780267148032316" lon="2.785189467849729"><ele>841.3333333333333</ele><time>2026-04-02T11:02:53Z</time></trkpt><trkpt lat="43.78038590590107" lon="2.785379646518629"><ele>847.6666666666667</ele><time>2026-04-02T11:02:54Z</time></trkpt><trkpt lat="43.780509898861226" lon="2.7855952990360437"><ele>854.0</ele><time>2026-04-02T11:02:55Z</time></trkpt><trkpt lat="43.780603648638085" lon="2.7858069471880555"><ele>854.0</ele><time>2026-04-02T11:02:56Z</time></trkpt><trkpt lat="43.780684771515524" lon="2.786006048099564"><ele>854.0</ele><time>2026-04-02T11:02:57Z</time></trkpt><trkpt lat="43.78077256949704" lon="2.7861622694680745"><ele>854.0</ele><time>2026-04-02T11:02:58Z</time></trkpt><trkpt lat="43.78084235276078" lon="2.786300996521495"><ele>854.0</ele><time>2026-04-02T11:02:59Z</time></trkpt><trkpt lat="43.78093789548286" lon="2.7863916155888524"><ele>851.25</ele><time>2026-04-02T11:03:00Z</time></trkpt><trkpt lat="43.78105218876686" lon="2.7864182000847895"><ele>848.5</ele><time>2026-04-02T11:03:01Z</time></trkpt><trkpt lat="43.781177614510156" lon="2.7863854544322604"><ele>845.75</ele><time>2026-04-02T11:03:02Z</time></trkpt><trkpt lat="43.78131918840422" lon="2.786319444152982"><ele>843.0</ele><time>2026-04-02T11:03:03Z</time></trkpt><trkpt lat="43.781477601968554" lon="2.7862849850416107"><ele>843.0</ele><time>2026-04-02T11:03:04Z</time></trkpt><trkpt lat="43.78165359917752" lon="2.7862782275371516"><ele>843.0</ele><time>2026-04-02T11:03:05Z</time></trkpt><trkpt lat="43.78184533520009" lon="2.7863051133993206"><ele>843.0</ele><time>2026-04-02T11:03:06Z</time></trkpt><trkpt lat="43.782045515757424" lon="2.7863663296133665"><ele>845.3333333333333</ele><time>2026-04-02T11:03:07Z</time></trkpt><trkpt lat="43.78224810314675" lon="2.786434268061543"><ele>847.6666666666666</ele><time>2026-04-02T11:03:08Z</time></trkpt><trkpt lat="43.78244199414967" lon="2.786517459835118"><ele>850.0</ele><time>2026-04-02T11:03:09Z</time></trkpt><trkpt lat="43.782627122332684" lon="2.7866180014436406"><ele>850.0</ele><time>2026-04-02T11:03:10Z</time></trkpt><trkpt lat="43.78277414116127" lon="2.7867474328832733"><ele>850.0</ele><time>2026-04-02T11:03:11Z</time></trkpt><trkpt lat="43.78291951009438" lon="2.7869179487958364"><ele>850.0</ele><time>2026-04-02T11:03:12Z</time></trkpt><trkpt lat="43.78302625861064" lon="2.787116480947153"><ele>850.0</ele><time>2026-04-02T11:03:13Z</time></trkpt><trkpt lat="43.78312635035847" lon="2.7873442990859867"><ele>850.0</ele><time>2026-04-02T11:03:14Z</time></trkpt><trkpt lat="43.78322424820336" lon="2.7875734963242693"><ele>850.0</ele><time>2026-04-02T11:03:15Z</time></trkpt><trkpt lat="43.783319637515405" lon="2.787805419610668"><ele>848.6666666666666</ele><time>2026-04-02T11:03:16Z</time></trkpt><trkpt lat="43.78340937784897" lon="2.7880552602044095"><ele>847.3333333333333</ele><time>2026-04-02T11:03:17Z</time></trkpt><trkpt lat="43.78349694917605" lon="2.7883116881309964"><ele>846.0</ele><time>2026-04-02T11:03:18Z</time></trkpt><trkpt lat="43.78358724027568" lon="2.7885619165303814"><ele>846.0</ele><time>2026-04-02T11:03:19Z</time></trkpt><trkpt lat="43.78367606296214" lon="2.78880220866204"><ele>846.0</ele><time>2026-04-02T11:03:20Z</time></trkpt><trkpt lat="43.7837589265361" lon="2.7890384781762982"><ele>846.0</ele><time>2026-04-02T11:03:21Z</time></trkpt><trkpt lat="43.783831429037384" lon="2.789264734350217"><ele>845.0</ele><time>2026-04-02T11:03:22Z</time></trkpt><trkpt lat="43.783892186745604" lon="2.7894749290262255"><ele>844.0</ele><time>2026-04-02T11:03:23Z</time></trkpt><trkpt lat="43.783948787926164" lon="2.7896550936168203"><ele>843.0</ele><time>2026-04-02T11:03:24Z</time></trkpt><trkpt lat="43.78398570634896" lon="2.78983227525265"><ele>842.0</ele><time>2026-04-02T11:03:25Z</time></trkpt><trkpt lat="43.78397292440209" lon="2.790006975859262"><ele>842.0</ele><time>2026-04-02T11:03:26Z</time></trkpt><trkpt lat="43.78396193605201" lon="2.790225157492168"><ele>842.0</ele><time>2026-04-02T11:03:27Z</time></trkpt><trkpt lat="43.783968996956176" lon="2.7904696873315213"><ele>842.0</ele><time>2026-04-02T11:03:28Z</time></trkpt><trkpt lat="43.783984390840764" lon="2.790722470439815"><ele>842.0</ele><time>2026-04-02T11:03:29Z</time></trkpt><trkpt lat="43.784004251252775" lon="2.790980998121785"><ele>842.0</ele><time>2026-04-02T11:03:30Z</time></trkpt><trkpt lat="43.784024442072564" lon="2.791249052966683"><ele>842.0</ele><time>2026-04-02T11:03:31Z</time></trkpt><trkpt lat="43.78404018353968" lon="2.7914999470542416"><ele>842.3333333333334</ele><time>2026-04-02T11:03:32Z</time></trkpt><trkpt lat="43.784057911209594" lon="2.7917447274458933"><ele>842.6666666666667</ele><time>2026-04-02T11:03:33Z</time></trkpt><trkpt lat="43.78408025767664" lon="2.79198747615532"><ele>843.0</ele><time>2026-04-02T11:03:34Z</time></trkpt><trkpt lat="43.78410486268192" lon="2.7922269630139467"><ele>842.3333333333333</ele><time>2026-04-02T11:03:35Z</time></trkpt><trkpt lat="43.784135591739634" lon="2.7924507758574957"><ele>841.6666666666666</ele><time>2026-04-02T11:03:36Z</time></trkpt><trkpt lat="43.78419620873943" lon="2.7926586981994226"><ele>841.0</ele><time>2026-04-02T11:03:37Z</time></trkpt><trkpt lat="43.784257418711896" lon="2.792851573129391"><ele>839.5</ele><time>2026-04-02T11:03:38Z</time></trkpt><trkpt lat="43.78430675412113" lon="2.7930425615037806"><ele>838.0</ele><time>2026-04-02T11:03:39Z</time></trkpt><trkpt lat="43.78433362852222" lon="2.793229076185817"><ele>836.5</ele><time>2026-04-02T11:03:40Z</time></trkpt><trkpt lat="43.78431265508697" lon="2.793410621130464"><ele>835.0</ele><time>2026-04-02T11:03:41Z</time></trkpt><trkpt lat="43.78426031493265" lon="2.7935805035897854"><ele>835.0</ele><time>2026-04-02T11:03:42Z</time></trkpt><trkpt lat="43.78420657750448" lon="2.7937614839897003"><ele>835.0</ele><time>2026-04-02T11:03:43Z</time></trkpt><trkpt lat="43.7841744537987" lon="2.79394849355978"><ele>835.0</ele><time>2026-04-02T11:03:44Z</time></trkpt><trkpt lat="43.78413844661584" lon="2.7941324525789186"><ele>835.0</ele><time>2026-04-02T11:03:45Z</time></trkpt><trkpt lat="43.78410748943174" lon="2.794322235538739"><ele>834.5</ele><time>2026-04-02T11:03:46Z</time></trkpt><trkpt lat="43.784083014758615" lon="2.7945078529187204"><ele>834.0</ele><time>2026-04-02T11:03:47Z</time></trkpt><trkpt lat="43.78406737114549" lon="2.794700409381654"><ele>833.5</ele><time>2026-04-02T11:03:48Z</time></trkpt><trkpt lat="43.784082852805184" lon="2.7948940542843674"><ele>833.0</ele><time>2026-04-02T11:03:49Z</time></trkpt><trkpt lat="43.784119149000354" lon="2.795084367949418"><ele>831.0</ele><time>2026-04-02T11:03:50Z</time></trkpt><trkpt lat="43.78414498734222" lon="2.795280883007043"><ele>829.0</ele><time>2026-04-02T11:03:51Z</time></trkpt><trkpt lat="43.78418411827242" lon="2.7954906484091095"><ele>827.0</ele><time>2026-04-02T11:03:52Z</time></trkpt><trkpt lat="43.784209421967105" lon="2.7957075686442012"><ele>827.0</ele><time>2026-04-02T11:03:53Z</time></trkpt><trkpt lat="43.78422014734991" lon="2.795941267224527"><ele>827.0</ele><time>2026-04-02T11:03:54Z</time></trkpt><trkpt lat="43.784230622230154" lon="2.796188679170308"><ele>827.0</ele><time>2026-04-02T11:03:55Z</time></trkpt><trkpt lat="43.78423959765455" lon="2.796429813983545"><ele>826.6666666666667</ele><time>2026-04-02T11:03:56Z</time></trkpt><trkpt lat="43.784244051694614" lon="2.7966792721999365"><ele>826.3333333333333</ele><time>2026-04-02T11:03:57Z</time></trkpt><trkpt lat="43.784237832015585" lon="2.7969325768872264"><ele>826.0</ele><time>2026-04-02T11:03:58Z</time></trkpt><trkpt lat="43.78422309354758" lon="2.7971705433630527"><ele>826.0</ele><time>2026-04-02T11:03:59Z</time></trkpt><trkpt lat="43.78420879488551" lon="2.7973970750265984"><ele>826.0</ele><time>2026-04-02T11:04:00Z</time></trkpt><trkpt lat="43.78422996734583" lon="2.7976045912420187"><ele>826.0</ele><time>2026-04-02T11:04:01Z</time></trkpt><trkpt lat="43.7842122309944" lon="2.7977896186061124"><ele>828.25</ele><time>2026-04-02T11:04:02Z</time></trkpt><trkpt lat="43.784183945782296" lon="2.7979436766272032"><ele>830.5</ele><time>2026-04-02T11:04:03Z</time></trkpt><trkpt lat="43.78410394732873" lon="2.798037841830088"><ele>832.75</ele><time>2026-04-02T11:04:04Z</time></trkpt><trkpt lat="43.78399337807044" lon="2.7980735654029396"><ele>835.0</ele><time>2026-04-02T11:04:05Z</time></trkpt><trkpt lat="43.783853069861856" lon="2.798115565376696"><ele>835.0</ele><time>2026-04-02T11:04:06Z</time></trkpt><trkpt lat="43.78369439949386" lon="2.798196483658969"><ele>835.0</ele><time>2026-04-02T11:04:07Z</time></trkpt><trkpt lat="43.78350607091473" lon="2.798260675157664"><ele>835.0</ele><time>2026-04-02T11:04:08Z</time></trkpt><trkpt lat="43.78332484458747" lon="2.79834350605824"><ele>835.0</ele><time>2026-04-02T11:04:09Z</time></trkpt><trkpt lat="43.783144937643" lon="2.7984152965764943"><ele>835.0</ele><time>2026-04-02T11:04:10Z</time></trkpt><trkpt lat="43.78297419114133" lon="2.7985178212016666"><ele>835.0</ele><time>2026-04-02T11:04:11Z</time></trkpt><trkpt lat="43.78279814712334" lon="2.798624301027997"><ele>828.6666666666666</ele><time>2026-04-02T11:04:12Z</time></trkpt><trkpt lat="43.782612326789554" lon="2.7987094994687416"><ele>822.3333333333333</ele><time>2026-04-02T11:04:13Z</time></trkpt><trkpt lat="43.78243026396089" lon="2.798799809484487"><ele>816.0</ele><time>2026-04-02T11:04:14Z</time></trkpt><trkpt lat="43.78226621934304" lon="2.7989205135142914"><ele>816.0</ele><time>2026-04-02T11:04:15Z</time></trkpt><trkpt lat="43.78210425620623" lon="2.799024839928147"><ele>816.0</ele><time>2026-04-02T11:04:16Z</time></trkpt><trkpt lat="43.78194935563483" lon="2.799143332159542"><ele>816.0</ele><time>2026-04-02T11:04:17Z</time></trkpt><trkpt lat="43.78177379172934" lon="2.7992138599944068"><ele>816.0</ele><time>2026-04-02T11:04:18Z</time></trkpt><trkpt lat="43.781611248888815" lon="2.799346070560729"><ele>816.0</ele><time>2026-04-02T11:04:19Z</time></trkpt><trkpt lat="43.78144172831754" lon="2.7994706996606227"><ele>816.0</ele><time>2026-04-02T11:04:20Z</time></trkpt><trkpt lat="43.78126334298479" lon="2.799590802737655"><ele>816.0</ele><time>2026-04-02T11:04:21Z</time></trkpt><trkpt lat="43.7810829448302" lon="2.799698187049308"><ele>816.0</ele><time>2026-04-02T11:04:22Z</time></trkpt><trkpt lat="43.780897460222334" lon="2.7998004138771124"><ele>816.0</ele><time>2026-04-02T11:04:23Z</time></trkpt><trkpt lat="43.780723871368124" lon="2.7998657833489426"><ele>811.0</ele><time>2026-04-02T11:04:24Z</time></trkpt><trkpt lat="43.78053434058844" lon="2.7998660746445836"><ele>806.0</ele><time>2026-04-02T11:04:25Z</time></trkpt><trkpt lat="43.78033903778707" lon="2.799818442186378"><ele>801.0</ele><time>2026-04-02T11:04:26Z</time></trkpt><trkpt lat="43.780137580820224" lon="2.7997721709245065"><ele>798.6666666666667</ele><time>2026-04-02T11:04:27Z</time></trkpt><trkpt lat="43.779945545622624" lon="2.7997368552014144"><ele>796.3333333333334</ele><time>2026-04-02T11:04:28Z</time></trkpt><trkpt lat="43.77976544815878" lon="2.7996421737746235"><ele>794.0</ele><time>2026-04-02T11:04:29Z</time></trkpt><trkpt lat="43.77960664855777" lon="2.799524512886692"><ele>794.0</ele><time>2026-04-02T11:04:30Z</time></trkpt><trkpt lat="43.77945309198477" lon="2.7993882989057948"><ele>794.0</ele><time>2026-04-02T11:04:31Z</time></trkpt><trkpt lat="43.779315469907054" lon="2.799291718397762"><ele>794.0</ele><time>2026-04-02T11:04:32Z</time></trkpt><trkpt lat="43.77917736196116" lon="2.7991920199468634"><ele>793.0</ele><time>2026-04-02T11:04:33Z</time></trkpt><trkpt lat="43.779026453437694" lon="2.799167980011979"><ele>792.0</ele><time>2026-04-02T11:04:34Z</time></trkpt><trkpt lat="43.778861657361965" lon="2.7992166103088185"><ele>791.0</ele><time>2026-04-02T11:04:35Z</time></trkpt><trkpt lat="43.778698622195215" lon="2.7993422481597343"><ele>791.0</ele><time>2026-04-02T11:04:36Z</time></trkpt><trkpt lat="43.77853640501174" lon="2.7995027448558822"><ele>791.0</ele><time>2026-04-02T11:04:37Z</time></trkpt><trkpt lat="43.77838847533713" lon="2.7996536453348835"><ele>791.0</ele><time>2026-04-02T11:04:38Z</time></trkpt><trkpt lat="43.77825630128629" lon="2.799821646025215"><ele>788.6666666666667</ele><time>2026-04-02T11:04:39Z</time></trkpt><trkpt lat="43.77813078841238" lon="2.800061492273545"><ele>786.3333333333333</ele><time>2026-04-02T11:04:40Z</time></trkpt><trkpt lat="43.777983717867734" lon="2.8003016601909665"><ele>784.0</ele><time>2026-04-02T11:04:41Z</time></trkpt><trkpt lat="43.777822536453854" lon="2.8004770765847673"><ele>778.6666666666666</ele><time>2026-04-02T11:04:42Z</time></trkpt><trkpt lat="43.77768250175182" lon="2.800646058521004"><ele>773.3333333333333</ele><time>2026-04-02T11:04:43Z</time></trkpt><trkpt lat="43.77757726615044" lon="2.8008451547144535"><ele>768.0</ele><time>2026-04-02T11:04:44Z</time></trkpt><trkpt lat="43.77751400449446" lon="2.8010768211579373"><ele>768.0</ele><time>2026-04-02T11:04:45Z</time></trkpt><trkpt lat="43.77748674243878" lon="2.80133704298556"><ele>768.0</ele><time>2026-04-02T11:04:46Z</time></trkpt><trkpt lat="43.777414956009956" lon="2.801590465812892"><ele>768.0</ele><time>2026-04-02T11:04:47Z</time></trkpt><trkpt lat="43.7773214504024" lon="2.801844506951201"><ele>769.6666666666667</ele><time>2026-04-02T11:04:48Z</time></trkpt><trkpt lat="43.77720098346188" lon="2.802095305670424"><ele>771.3333333333334</ele><time>2026-04-02T11:04:49Z</time></trkpt><trkpt lat="43.777060027003735" lon="2.8023183533074625"><ele>773.0</ele><time>2026-04-02T11:04:50Z</time></trkpt><trkpt lat="43.77692209739287" lon="2.8025319891468965"><ele>768.6666666666667</ele><time>2026-04-02T11:04:51Z</time></trkpt><trkpt lat="43.77679888267924" lon="2.8027321599862995"><ele>764.3333333333334</ele><time>2026-04-02T11:04:52Z</time></trkpt><trkpt lat="43.77669432575878" lon="2.802939504601102"><ele>760.0</ele><time>2026-04-02T11:04:53Z</time></trkpt><trkpt lat="43.77664006265587" lon="2.8031120741321445"><ele>760.0</ele><time>2026-04-02T11:04:54Z</time></trkpt><trkpt lat="43.7766270404784" lon="2.8032125367591196"><ele>760.0</ele><time>2026-04-02T11:04:55Z</time></trkpt><trkpt lat="43.7766647500852" lon="2.803318233613239"><ele>760.0</ele><time>2026-04-02T11:04:57Z</time></trkpt><trkpt lat="43.776753487368" lon="2.8034700620639734"><ele>760.0</ele><time>2026-04-02T11:04:59Z</time></trkpt><trkpt lat="43.77683269401754" lon="2.803577140622866"><ele>760.0</ele><time>2026-04-02T11:05:00Z</time></trkpt><trkpt lat="43.776920326499614" lon="2.803696259447664"><ele>758.25</ele><time>2026-04-02T11:05:01Z</time></trkpt><trkpt lat="43.77701051615015" lon="2.8038233456378516"><ele>756.5</ele><time>2026-04-02T11:05:02Z</time></trkpt><trkpt lat="43.777098370404644" lon="2.80393842173986"><ele>754.75</ele><time>2026-04-02T11:05:03Z</time></trkpt><trkpt lat="43.7771901453911" lon="2.8040391273398892"><ele>753.0</ele><time>2026-04-02T11:05:04Z</time></trkpt><trkpt lat="43.77727765111625" lon="2.804132631436661"><ele>753.0</ele><time>2026-04-02T11:05:05Z</time></trkpt><trkpt lat="43.77736168234383" lon="2.8042285888825633"><ele>753.0</ele><time>2026-04-02T11:05:06Z</time></trkpt><trkpt lat="43.77744934729317" lon="2.804330069064421"><ele>753.0</ele><time>2026-04-02T11:05:07Z</time></trkpt><trkpt lat="43.7775317367542" lon="2.80442589793184"><ele>753.0</ele><time>2026-04-02T11:05:08Z</time></trkpt><trkpt lat="43.77761653164488" lon="2.8045224035104335"><ele>753.0</ele><time>2026-04-02T11:05:09Z</time></trkpt><trkpt lat="43.77770313286102" lon="2.8046035881270104"><ele>752.5999999999999</ele><time>2026-04-02T11:05:10Z</time></trkpt><trkpt lat="43.77779897113144" lon="2.8046447887419945"><ele>752.1999999999999</ele><time>2026-04-02T11:05:11Z</time></trkpt><trkpt lat="43.77788309510961" lon="2.8046868274920755"><ele>751.8</ele><time>2026-04-02T11:05:12Z</time></trkpt><trkpt lat="43.777942338231036" lon="2.8047815208382563"><ele>751.4</ele><time>2026-04-02T11:05:13Z</time></trkpt><trkpt lat="43.777963822267616" lon="2.804896850822467"><ele>751.0</ele><time>2026-04-02T11:05:14Z</time></trkpt><trkpt lat="43.77802142599371" lon="2.8050102177706875"><ele>751.0</ele><time>2026-04-02T11:05:15Z</time></trkpt><trkpt lat="43.77807730165778" lon="2.805097610748095"><ele>751.0</ele><time>2026-04-02T11:05:16Z</time></trkpt><trkpt lat="43.77813412020769" lon="2.805179294044215"><ele>751.0</ele><time>2026-04-02T11:05:17Z</time></trkpt><trkpt lat="43.77818992585837" lon="2.8052687362370956"><ele>751.0</ele><time>2026-04-02T11:05:18Z</time></trkpt><trkpt lat="43.77824315123751" lon="2.8053773147380214"><ele>751.0</ele><time>2026-04-02T11:05:19Z</time></trkpt><trkpt lat="43.77829077899814" lon="2.8055096556465524"><ele>752.75</ele><time>2026-04-02T11:05:20Z</time></trkpt><trkpt lat="43.7783482846994" lon="2.805632334971386"><ele>754.5</ele><time>2026-04-02T11:05:21Z</time></trkpt><trkpt lat="43.77844434702547" lon="2.805723747622742"><ele>756.25</ele><time>2026-04-02T11:05:22Z</time></trkpt><trkpt lat="43.77854982271833" lon="2.805813634291817"><ele>758.0</ele><time>2026-04-02T11:05:23Z</time></trkpt><trkpt lat="43.77865714714025" lon="2.8059083710455828"><ele>758.0</ele><time>2026-04-02T11:05:24Z</time></trkpt><trkpt lat="43.77872807987257" lon="2.8059929119758364"><ele>758.0</ele><time>2026-04-02T11:05:25Z</time></trkpt><trkpt lat="43.77878836192241" lon="2.8061128454860844"><ele>758.0</ele><time>2026-04-02T11:05:26Z</time></trkpt><trkpt lat="43.77881250738116" lon="2.8062463761837004"><ele>758.0</ele><time>2026-04-02T11:05:27Z</time></trkpt><trkpt lat="43.77878485024193" lon="2.8064018043982637"><ele>758.0</ele><time>2026-04-02T11:05:28Z</time></trkpt><trkpt lat="43.778778589860536" lon="2.806606060927181"><ele>756.25</ele><time>2026-04-02T11:05:29Z</time></trkpt><trkpt lat="43.77876632931018" lon="2.806809819247575"><ele>754.5</ele><time>2026-04-02T11:05:30Z</time></trkpt><trkpt lat="43.778739438361896" lon="2.8069909952730514"><ele>752.75</ele><time>2026-04-02T11:05:31Z</time></trkpt><trkpt lat="43.77871184529876" lon="2.807177464139905"><ele>751.0</ele><time>2026-04-02T11:05:32Z</time></trkpt><trkpt lat="43.778725091994176" lon="2.807364237790145"><ele>749.5</ele><time>2026-04-02T11:05:33Z</time></trkpt><trkpt lat="43.77873165330594" lon="2.8075285888736787"><ele>748.0</ele><time>2026-04-02T11:05:34Z</time></trkpt><trkpt lat="43.77877146500447" lon="2.8076847644530916"><ele>746.5</ele><time>2026-04-02T11:05:35Z</time></trkpt><trkpt lat="43.778873930253624" lon="2.807794221737948"><ele>745.0</ele><time>2026-04-02T11:05:36Z</time></trkpt><trkpt lat="43.77893463669783" lon="2.80789306842965"><ele>744.4</ele><time>2026-04-02T11:05:37Z</time></trkpt><trkpt lat="43.77895707628658" lon="2.808019463528575"><ele>743.8</ele><time>2026-04-02T11:05:38Z</time></trkpt><trkpt lat="43.77888460529361" lon="2.8081021734984235"><ele>743.2</ele><time>2026-04-02T11:05:39Z</time></trkpt><trkpt lat="43.77885309473739" lon="2.8082377178053792"><ele>742.6</ele><time>2026-04-02T11:05:40Z</time></trkpt><trkpt lat="43.77883183182003" lon="2.808383320367966"><ele>742.0</ele><time>2026-04-02T11:05:41Z</time></trkpt><trkpt lat="43.77887840997771" lon="2.8085519146954683"><ele>742.0</ele><time>2026-04-02T11:05:42Z</time></trkpt><trkpt lat="43.77893968346749" lon="2.8086722321855278"><ele>742.0</ele><time>2026-04-02T11:05:43Z</time></trkpt><trkpt lat="43.77896746169425" lon="2.8087838367804796"><ele>742.0</ele><time>2026-04-02T11:05:44Z</time></trkpt><trkpt lat="43.77895551425052" lon="2.808879902200399"><ele>742.0</ele><time>2026-04-02T11:05:45Z</time></trkpt><trkpt lat="43.77891559665589" lon="2.808953210114833"><ele>742.0</ele><time>2026-04-02T11:05:46Z</time></trkpt><trkpt lat="43.77884265244581" lon="2.808951124393473"><ele>742.0</ele><time>2026-04-02T11:05:47Z</time></trkpt><trkpt lat="43.778764006901014" lon="2.809001006845009"><ele>742.0</ele><time>2026-04-02T11:05:48Z</time></trkpt><trkpt lat="43.77868521383608" lon="2.809076684704862"><ele>742.0</ele><time>2026-04-02T11:05:49Z</time></trkpt><trkpt lat="43.77863138318249" lon="2.8092326041205107"><ele>742.0</ele><time>2026-04-02T11:05:50Z</time></trkpt><trkpt lat="43.7786099435688" lon="2.8094009702301914"><ele>742.0</ele><time>2026-04-02T11:05:51Z</time></trkpt><trkpt lat="43.77859440941144" lon="2.8095694905962145"><ele>743.25</ele><time>2026-04-02T11:05:52Z</time></trkpt><trkpt lat="43.778559300122524" lon="2.809745367093195"><ele>744.5</ele><time>2026-04-02T11:05:53Z</time></trkpt><trkpt lat="43.77854836141097" lon="2.80992391982972"><ele>745.75</ele><time>2026-04-02T11:05:54Z</time></trkpt><trkpt lat="43.77855292661267" lon="2.8101021683634624"><ele>747.0</ele><time>2026-04-02T11:05:55Z</time></trkpt><trkpt lat="43.7785775938328" lon="2.8102828987556294"><ele>749.3333333333334</ele><time>2026-04-02T11:05:56Z</time></trkpt><trkpt lat="43.778626147257434" lon="2.810496024936205"><ele>751.6666666666667</ele><time>2026-04-02T11:05:57Z</time></trkpt><trkpt lat="43.778668752847395" lon="2.8107243347363786"><ele>754.0</ele><time>2026-04-02T11:05:58Z</time></trkpt><trkpt lat="43.77870833869124" lon="2.8109606280988726"><ele>754.6666666666667</ele><time>2026-04-02T11:05:59Z</time></trkpt><trkpt lat="43.77875562556124" lon="2.8111838783503025"><ele>755.3333333333334</ele><time>2026-04-02T11:06:00Z</time></trkpt><trkpt lat="43.778830545546526" lon="2.81138036831584"><ele>756.0</ele><time>2026-04-02T11:06:01Z</time></trkpt><trkpt lat="43.778912676470036" lon="2.8115619832270933"><ele>756.0</ele><time>2026-04-02T11:06:02Z</time></trkpt><trkpt lat="43.77897366334994" lon="2.811720574819412"><ele>756.0</ele><time>2026-04-02T11:06:03Z</time></trkpt><trkpt lat="43.77900714694307" lon="2.8119106671316247"><ele>756.0</ele><time>2026-04-02T11:06:04Z</time></trkpt><trkpt lat="43.77899856965543" lon="2.81205794241773"><ele>756.0</ele><time>2026-04-02T11:06:05Z</time></trkpt><trkpt lat="43.778976541594275" lon="2.812205994834766"><ele>755.75</ele><time>2026-04-02T11:06:06Z</time></trkpt><trkpt lat="43.77897606439572" lon="2.812353301890341"><ele>755.5</ele><time>2026-04-02T11:06:07Z</time></trkpt><trkpt lat="43.77897851601294" lon="2.812488144984773"><ele>755.25</ele><time>2026-04-02T11:06:08Z</time></trkpt><trkpt lat="43.77910189531789" lon="2.81263916879693"><ele>755.0</ele><time>2026-04-02T11:06:09Z</time></trkpt><trkpt lat="43.7791952470524" lon="2.8127586115953465"><ele>756.0</ele><time>2026-04-02T11:06:10Z</time></trkpt><trkpt lat="43.77929784656508" lon="2.812879554602788"><ele>757.0</ele><time>2026-04-02T11:06:11Z</time></trkpt><trkpt lat="43.77940395005031" lon="2.812992085874167"><ele>758.0</ele><time>2026-04-02T11:06:12Z</time></trkpt><trkpt lat="43.77947271176967" lon="2.8130955346956865"><ele>759.0</ele><time>2026-04-02T11:06:13Z</time></trkpt><trkpt lat="43.779517059750816" lon="2.8131689170700307"><ele>760.0</ele><time>2026-04-02T11:06:14Z</time></trkpt><trkpt lat="43.77946386645968" lon="2.813217939929399"><ele>760.25</ele><time>2026-04-02T11:06:16Z</time></trkpt><trkpt lat="43.779332072616846" lon="2.8131331660598606"><ele>760.5</ele><time>2026-04-02T11:06:18Z</time></trkpt><trkpt lat="43.779234697971695" lon="2.8130293159324786"><ele>760.75</ele><time>2026-04-02T11:06:19Z</time></trkpt><trkpt lat="43.77909720071947" lon="2.8129128065283173"><ele>761.0</ele><time>2026-04-02T11:06:20Z</time></trkpt><trkpt lat="43.778959934009784" lon="2.81277482402894"><ele>759.0</ele><time>2026-04-02T11:06:21Z</time></trkpt><trkpt lat="43.77881631565985" lon="2.8126427670854612"><ele>757.0</ele><time>2026-04-02T11:06:22Z</time></trkpt><trkpt lat="43.778690898800505" lon="2.8125256526893425"><ele>755.0</ele><time>2026-04-02T11:06:23Z</time></trkpt><trkpt lat="43.77857741675464" lon="2.812432487211013"><ele>755.5</ele><time>2026-04-02T11:06:24Z</time></trkpt><trkpt lat="43.778474251861034" lon="2.812366149934981"><ele>756.0</ele><time>2026-04-02T11:06:25Z</time></trkpt><trkpt lat="43.778357881206816" lon="2.812364619535055"><ele>756.5</ele><time>2026-04-02T11:06:26Z</time></trkpt><trkpt lat="43.7782336456048" lon="2.812396556789867"><ele>757.0</ele><time>2026-04-02T11:06:27Z</time></trkpt><trkpt lat="43.778116159529745" lon="2.812351270931613"><ele>757.0</ele><time>2026-04-02T11:06:28Z</time></trkpt><trkpt lat="43.77802147986416" lon="2.812245134446633"><ele>757.0</ele><time>2026-04-02T11:06:29Z</time></trkpt><trkpt lat="43.777923753743124" lon="2.812120775027775"><ele>757.0</ele><time>2026-04-02T11:06:30Z</time></trkpt><trkpt lat="43.777841466690774" lon="2.811996068164566"><ele>757.0</ele><time>2026-04-02T11:06:31Z</time></trkpt><trkpt lat="43.77776045358839" lon="2.811906591330302"><ele>757.2</ele><time>2026-04-02T11:06:32Z</time></trkpt><trkpt lat="43.77770098913685" lon="2.811822629826754"><ele>757.4000000000001</ele><time>2026-04-02T11:06:33Z</time></trkpt><trkpt lat="43.777612369211575" lon="2.811772345459852"><ele>757.5999999999999</ele><time>2026-04-02T11:06:34Z</time></trkpt><trkpt lat="43.777502441503216" lon="2.8117759784585776"><ele>757.8</ele><time>2026-04-02T11:06:35Z</time></trkpt><trkpt lat="43.77739680442758" lon="2.8118149535357757"><ele>758.0</ele><time>2026-04-02T11:06:36Z</time></trkpt><trkpt lat="43.77730108533265" lon="2.8119112534248702"><ele>759.5</ele><time>2026-04-02T11:06:37Z</time></trkpt><trkpt lat="43.77722090981067" lon="2.8120142079119694"><ele>761.0</ele><time>2026-04-02T11:06:38Z</time></trkpt><trkpt lat="43.777141203492256" lon="2.8121298287896357"><ele>762.5</ele><time>2026-04-02T11:06:39Z</time></trkpt><trkpt lat="43.77707235925055" lon="2.812268697712714"><ele>764.0</ele><time>2026-04-02T11:06:40Z</time></trkpt><trkpt lat="43.77700221688254" lon="2.8124035930906697"><ele>764.0</ele><time>2026-04-02T11:06:41Z</time></trkpt><trkpt lat="43.77693217977653" lon="2.812544010362526"><ele>764.0</ele><time>2026-04-02T11:06:42Z</time></trkpt><trkpt lat="43.77688078012216" lon="2.812671177782629"><ele>764.0</ele><time>2026-04-02T11:06:43Z</time></trkpt><trkpt lat="43.77687534889271" lon="2.812801762611934"><ele>764.0</ele><time>2026-04-02T11:06:44Z</time></trkpt><trkpt lat="43.776914947663776" lon="2.8129060399538246"><ele>764.0</ele><time>2026-04-02T11:06:45Z</time></trkpt><trkpt lat="43.77704893556011" lon="2.812917113555968"><ele>766.25</ele><time>2026-04-02T11:06:46Z</time></trkpt><trkpt lat="43.77716796687039" lon="2.8129010684372195"><ele>768.5</ele><time>2026-04-02T11:06:47Z</time></trkpt><trkpt lat="43.777288450122064" lon="2.8128961070207987"><ele>770.75</ele><time>2026-04-02T11:06:48Z</time></trkpt><trkpt lat="43.777411850866436" lon="2.812973868050031"><ele>773.0</ele><time>2026-04-02T11:06:49Z</time></trkpt><trkpt lat="43.77751931502907" lon="2.8130730313749277"><ele>773.0</ele><time>2026-04-02T11:06:50Z</time></trkpt><trkpt lat="43.77762682053638" lon="2.8131894372049455"><ele>773.0</ele><time>2026-04-02T11:06:51Z</time></trkpt><trkpt lat="43.77773348388497" lon="2.813316561070839"><ele>773.0</ele><time>2026-04-02T11:06:52Z</time></trkpt><trkpt lat="43.77783936446498" lon="2.8134370044479318"><ele>773.0</ele><time>2026-04-02T11:06:53Z</time></trkpt><trkpt lat="43.777939997840654" lon="2.8135219453435067"><ele>774.5999999999999</ele><time>2026-04-02T11:06:54Z</time></trkpt><trkpt lat="43.77801261944998" lon="2.8136262189433126"><ele>776.1999999999999</ele><time>2026-04-02T11:06:55Z</time></trkpt><trkpt lat="43.778074642041055" lon="2.813714707510237"><ele>777.8</ele><time>2026-04-02T11:06:56Z</time></trkpt><trkpt lat="43.778042880294876" lon="2.8138313963390544"><ele>779.4</ele><time>2026-04-02T11:06:58Z</time></trkpt><trkpt lat="43.777922603150294" lon="2.8137965497285187"><ele>781.0</ele><time>2026-04-02T11:07:00Z</time></trkpt><trkpt lat="43.777829997648766" lon="2.8137238287900685"><ele>781.0</ele><time>2026-04-02T11:07:01Z</time></trkpt><trkpt lat="43.77771432270892" lon="2.8136566940451875"><ele>781.0</ele><time>2026-04-02T11:07:02Z</time></trkpt><trkpt lat="43.777591357090856" lon="2.8136347747149655"><ele>781.0</ele><time>2026-04-02T11:07:03Z</time></trkpt><trkpt lat="43.77746396723692" lon="2.813669992738057"><ele>781.0</ele><time>2026-04-02T11:07:04Z</time></trkpt><trkpt lat="43.777360143181156" lon="2.8137809095018804"><ele>781.25</ele><time>2026-04-02T11:07:05Z</time></trkpt><trkpt lat="43.77726498132613" lon="2.8139351098705196"><ele>781.5</ele><time>2026-04-02T11:07:06Z</time></trkpt><trkpt lat="43.7771924840444" lon="2.814106720151273"><ele>781.75</ele><time>2026-04-02T11:07:07Z</time></trkpt><trkpt lat="43.77716456313005" lon="2.814291763399684"><ele>782.0</ele><time>2026-04-02T11:07:08Z</time></trkpt><trkpt lat="43.777178940338935" lon="2.8145095403835803"><ele>783.6666666666667</ele><time>2026-04-02T11:07:09Z</time></trkpt><trkpt lat="43.77719909362699" lon="2.814756085380405"><ele>785.3333333333333</ele><time>2026-04-02T11:07:10Z</time></trkpt><trkpt lat="43.77726833853666" lon="2.8150019818312106"><ele>787.0</ele><time>2026-04-02T11:07:11Z</time></trkpt><trkpt lat="43.77734007226693" lon="2.8152467672814376"><ele>787.0</ele><time>2026-04-02T11:07:12Z</time></trkpt><trkpt lat="43.77741414878794" lon="2.8154994683112053"><ele>787.0</ele><time>2026-04-02T11:07:13Z</time></trkpt><trkpt lat="43.77749352539565" lon="2.815764660568395"><ele>787.0</ele><time>2026-04-02T11:07:14Z</time></trkpt><trkpt lat="43.77756551072365" lon="2.816031776560205"><ele>786.6666666666666</ele><time>2026-04-02T11:07:15Z</time></trkpt><trkpt lat="43.777631655414" lon="2.816302940354844"><ele>786.3333333333333</ele><time>2026-04-02T11:07:16Z</time></trkpt><trkpt lat="43.777695407897966" lon="2.8165757534979803"><ele>786.0</ele><time>2026-04-02T11:07:17Z</time></trkpt><trkpt lat="43.77774559852137" lon="2.8168444534174113"><ele>795.6666666666667</ele><time>2026-04-02T11:07:18Z</time></trkpt><trkpt lat="43.777783584208485" lon="2.8171106069109744"><ele>805.3333333333334</ele><time>2026-04-02T11:07:19Z</time></trkpt><trkpt lat="43.777819478939435" lon="2.8173795995582847"><ele>815.0</ele><time>2026-04-02T11:07:20Z</time></trkpt><trkpt lat="43.77784849441065" lon="2.817642425462576"><ele>817.0</ele><time>2026-04-02T11:07:21Z</time></trkpt><trkpt lat="43.77786127603143" lon="2.8178953491302443"><ele>819.0</ele><time>2026-04-02T11:07:22Z</time></trkpt><trkpt lat="43.777863946635904" lon="2.81815802653548"><ele>821.0</ele><time>2026-04-02T11:07:23Z</time></trkpt><trkpt lat="43.777861391376334" lon="2.8184302361493585"><ele>823.3333333333334</ele><time>2026-04-02T11:07:24Z</time></trkpt><trkpt lat="43.777849747251295" lon="2.81869091742957"><ele>825.6666666666667</ele><time>2026-04-02T11:07:25Z</time></trkpt><trkpt lat="43.77783369444473" lon="2.8189301169499625"><ele>828.0</ele><time>2026-04-02T11:07:26Z</time></trkpt><trkpt lat="43.77782258421338" lon="2.819173965403492"><ele>828.3333333333333</ele><time>2026-04-02T11:07:27Z</time></trkpt><trkpt lat="43.77781655915071" lon="2.8194118582496066"><ele>828.6666666666666</ele><time>2026-04-02T11:07:28Z</time></trkpt><trkpt lat="43.77781873122748" lon="2.819632116683964"><ele>829.0</ele><time>2026-04-02T11:07:29Z</time></trkpt><trkpt lat="43.77786011365173" lon="2.8198393507968893"><ele>829.0</ele><time>2026-04-02T11:07:30Z</time></trkpt><trkpt lat="43.777923133034314" lon="2.820033446501389"><ele>829.0</ele><time>2026-04-02T11:07:31Z</time></trkpt><trkpt lat="43.77797844236266" lon="2.8202295118576566"><ele>829.0</ele><time>2026-04-02T11:07:32Z</time></trkpt><trkpt lat="43.77801595067962" lon="2.8204272240677937"><ele>828.6666666666666</ele><time>2026-04-02T11:07:33Z</time></trkpt><trkpt lat="43.778006287523695" lon="2.8206295771607577"><ele>828.3333333333333</ele><time>2026-04-02T11:07:34Z</time></trkpt><trkpt lat="43.777955762647835" lon="2.8208456417019074"><ele>828.0</ele><time>2026-04-02T11:07:35Z</time></trkpt><trkpt lat="43.77789722464373" lon="2.8210913179357"><ele>829.6666666666667</ele><time>2026-04-02T11:07:36Z</time></trkpt><trkpt lat="43.77782271064416" lon="2.821333338348863"><ele>831.3333333333334</ele><time>2026-04-02T11:07:37Z</time></trkpt><trkpt lat="43.77772783522291" lon="2.8215505807949475"><ele>833.0</ele><time>2026-04-02T11:07:38Z</time></trkpt><trkpt lat="43.77760302907585" lon="2.821732960211892"><ele>827.0</ele><time>2026-04-02T11:07:39Z</time></trkpt><trkpt lat="43.77746300040953" lon="2.821876735294093"><ele>821.0</ele><time>2026-04-02T11:07:40Z</time></trkpt><trkpt lat="43.77732190621706" lon="2.822022143811008"><ele>815.0</ele><time>2026-04-02T11:07:41Z</time></trkpt><trkpt lat="43.777212005089225" lon="2.8221897663865523"><ele>815.0</ele><time>2026-04-02T11:07:42Z</time></trkpt><trkpt lat="43.77713518420459" lon="2.822383779313395"><ele>815.0</ele><time>2026-04-02T11:07:43Z</time></trkpt><trkpt lat="43.777094886175995" lon="2.8226315776627913"><ele>815.0</ele><time>2026-04-02T11:07:44Z</time></trkpt><trkpt lat="43.77703988914911" lon="2.82287595289948"><ele>817.6666666666667</ele><time>2026-04-02T11:07:45Z</time></trkpt><trkpt lat="43.7770376034552" lon="2.8231122839893232"><ele>820.3333333333333</ele><time>2026-04-02T11:07:46Z</time></trkpt><trkpt lat="43.77706487004696" lon="2.823335569569152"><ele>823.0</ele><time>2026-04-02T11:07:47Z</time></trkpt><trkpt lat="43.77708307843915" lon="2.8235529866841116"><ele>824.3333333333333</ele><time>2026-04-02T11:07:48Z</time></trkpt><trkpt lat="43.777060146601194" lon="2.8237685211222745"><ele>825.6666666666667</ele><time>2026-04-02T11:07:49Z</time></trkpt><trkpt lat="43.77698893267436" lon="2.8239904379736123"><ele>827.0</ele><time>2026-04-02T11:07:50Z</time></trkpt><trkpt lat="43.776918070233066" lon="2.8242242448133235"><ele>828.6666666666667</ele><time>2026-04-02T11:07:51Z</time></trkpt><trkpt lat="43.776857685030755" lon="2.824433652356491"><ele>830.3333333333333</ele><time>2026-04-02T11:07:52Z</time></trkpt><trkpt lat="43.77678783414508" lon="2.824637390855353"><ele>832.0</ele><time>2026-04-02T11:07:53Z</time></trkpt><trkpt lat="43.77672634224776" lon="2.824883535093839"><ele>821.3333333333333</ele><time>2026-04-02T11:07:54Z</time></trkpt><trkpt lat="43.77672156491934" lon="2.825179441266787"><ele>810.6666666666667</ele><time>2026-04-02T11:07:55Z</time></trkpt><trkpt lat="43.77671262654941" lon="2.8254688071977583"><ele>800.0</ele><time>2026-04-02T11:07:56Z</time></trkpt><trkpt lat="43.776716551222115" lon="2.8257569159708473"><ele>802.6666666666667</ele><time>2026-04-02T11:07:57Z</time></trkpt><trkpt lat="43.776721152940645" lon="2.8260298231736916"><ele>805.3333333333333</ele><time>2026-04-02T11:07:58Z</time></trkpt><trkpt lat="43.77668680784428" lon="2.826286445276308"><ele>808.0</ele><time>2026-04-02T11:07:59Z</time></trkpt><trkpt lat="43.77660265782557" lon="2.826492666723207"><ele>808.0</ele><time>2026-04-02T11:08:00Z</time></trkpt><trkpt lat="43.776507378126574" lon="2.8267195302025234"><ele>808.0</ele><time>2026-04-02T11:08:01Z</time></trkpt><trkpt lat="43.77640771423513" lon="2.8269397139564063"><ele>808.0</ele><time>2026-04-02T11:08:02Z</time></trkpt><trkpt lat="43.7763069938113" lon="2.827149918530368"><ele>808.25</ele><time>2026-04-02T11:08:03Z</time></trkpt><trkpt lat="43.77622195029416" lon="2.827326249910122"><ele>808.5</ele><time>2026-04-02T11:08:04Z</time></trkpt><trkpt lat="43.7761608034645" lon="2.8274504901357007"><ele>808.75</ele><time>2026-04-02T11:08:05Z</time></trkpt><trkpt lat="43.7761185825696" lon="2.827532697077047"><ele>809.0</ele><time>2026-04-02T11:08:06Z</time></trkpt><trkpt lat="43.77620769815781" lon="2.8277775898725874"><ele>805.6666666666667</ele><time>2026-04-02T11:08:08Z</time></trkpt><trkpt lat="43.776301062466565" lon="2.827905487367172"><ele>802.3333333333333</ele><time>2026-04-02T11:08:09Z</time></trkpt><trkpt lat="43.77642663302912" lon="2.8280361107932497"><ele>799.0</ele><time>2026-04-02T11:08:10Z</time></trkpt><trkpt lat="43.77654671382149" lon="2.828206604996272"><ele>799.0</ele><time>2026-04-02T11:08:11Z</time></trkpt><trkpt lat="43.77666221313569" lon="2.828360120871943"><ele>799.0</ele><time>2026-04-02T11:08:12Z</time></trkpt><trkpt lat="43.7767853590178" lon="2.8284817359043126"><ele>799.0</ele><time>2026-04-02T11:08:13Z</time></trkpt><trkpt lat="43.77690324127482" lon="2.828600039535797"><ele>798.0</ele><time>2026-04-02T11:08:14Z</time></trkpt><trkpt lat="43.777066050258455" lon="2.8286809266211326"><ele>797.0</ele><time>2026-04-02T11:08:15Z</time></trkpt><trkpt lat="43.777247696211944" lon="2.8287966106074323"><ele>796.0</ele><time>2026-04-02T11:08:16Z</time></trkpt><trkpt lat="43.77737710305984" lon="2.828965664285455"><ele>796.0</ele><time>2026-04-02T11:08:17Z</time></trkpt><trkpt lat="43.77749366730529" lon="2.829179535134766"><ele>796.0</ele><time>2026-04-02T11:08:18Z</time></trkpt><trkpt lat="43.77763614258672" lon="2.82939008372569"><ele>796.0</ele><time>2026-04-02T11:08:19Z</time></trkpt><trkpt lat="43.77780061976699" lon="2.8295909187667423"><ele>798.5</ele><time>2026-04-02T11:08:20Z</time></trkpt><trkpt lat="43.777979468563174" lon="2.829813604073084"><ele>801.0</ele><time>2026-04-02T11:08:21Z</time></trkpt><trkpt lat="43.77814931153559" lon="2.830063221583932"><ele>801.6666666666667</ele><time>2026-04-02T11:08:22Z</time></trkpt><trkpt lat="43.77831691260774" lon="2.8302819818605727"><ele>802.3333333333334</ele><time>2026-04-02T11:08:23Z</time></trkpt><trkpt lat="43.77847614125683" lon="2.830486803757244"><ele>803.0</ele><time>2026-04-02T11:08:24Z</time></trkpt><trkpt lat="43.778641302071016" lon="2.8306585554788724"><ele>803.0</ele><time>2026-04-02T11:08:25Z</time></trkpt><trkpt lat="43.77879736082755" lon="2.8308415480149187"><ele>803.0</ele><time>2026-04-02T11:08:26Z</time></trkpt><trkpt lat="43.77895078309236" lon="2.8310293245570617"><ele>803.0</ele><time>2026-04-02T11:08:27Z</time></trkpt><trkpt lat="43.77910404293334" lon="2.8311998427119853"><ele>802.3333333333334</ele><time>2026-04-02T11:08:28Z</time></trkpt><trkpt lat="43.77924013656539" lon="2.831367817986071"><ele>801.6666666666667</ele><time>2026-04-02T11:08:29Z</time></trkpt><trkpt lat="43.77935709451336" lon="2.8315527962458344"><ele>801.0</ele><time>2026-04-02T11:08:30Z</time></trkpt><trkpt lat="43.77944545474873" lon="2.8317661391070783"><ele>797.6666666666667</ele><time>2026-04-02T11:08:31Z</time></trkpt><trkpt lat="43.779520661199754" lon="2.831998173607327"><ele>794.3333333333334</ele><time>2026-04-02T11:08:32Z</time></trkpt><trkpt lat="43.779572556485526" lon="2.8322296600223997"><ele>791.0</ele><time>2026-04-02T11:08:33Z</time></trkpt><trkpt lat="43.779615143733636" lon="2.8324203690446095"><ele>791.0</ele><time>2026-04-02T11:08:34Z</time></trkpt><trkpt lat="43.77967559820114" lon="2.8325717129053736"><ele>791.0</ele><time>2026-04-02T11:08:35Z</time></trkpt><trkpt lat="43.779738001466484" lon="2.8326913280003474"><ele>791.0</ele><time>2026-04-02T11:08:36Z</time></trkpt><trkpt lat="43.779798206202535" lon="2.832780485441403"><ele>791.0</ele><time>2026-04-02T11:08:37Z</time></trkpt><trkpt lat="43.77975649778108" lon="2.8328725135138306"><ele>791.0</ele><time>2026-04-02T11:08:40Z</time></trkpt><trkpt lat="43.779688118217734" lon="2.832824580997184"><ele>791.0</ele><time>2026-04-02T11:08:41Z</time></trkpt><trkpt lat="43.7796183053939" lon="2.8327020766623834"><ele>791.0</ele><time>2026-04-02T11:08:42Z</time></trkpt><trkpt lat="43.77954848173525" lon="2.8326256481225096"><ele>791.0</ele><time>2026-04-02T11:08:43Z</time></trkpt><trkpt lat="43.77948206452505" lon="2.8326255938435225"><ele>791.0</ele><time>2026-04-02T11:08:44Z</time></trkpt><trkpt lat="43.77942703659876" lon="2.8327097571441775"><ele>791.0</ele><time>2026-04-02T11:08:45Z</time></trkpt><trkpt lat="43.77946379816054" lon="2.8328833941220686"><ele>785.3333333333334</ele><time>2026-04-02T11:08:46Z</time></trkpt><trkpt lat="43.77958895535134" lon="2.8330062068199005"><ele>779.6666666666667</ele><time>2026-04-02T11:08:47Z</time></trkpt><trkpt lat="43.77969814396301" lon="2.83317544783382"><ele>774.0</ele><time>2026-04-02T11:08:48Z</time></trkpt><trkpt lat="43.77978780153791" lon="2.8333334177190874"><ele>774.0</ele><time>2026-04-02T11:08:49Z</time></trkpt><trkpt lat="43.77987195925366" lon="2.8334693268939204"><ele>774.0</ele><time>2026-04-02T11:08:50Z</time></trkpt><trkpt lat="43.77998850009899" lon="2.8335510593386646"><ele>774.0</ele><time>2026-04-02T11:08:51Z</time></trkpt><trkpt lat="43.78007130919544" lon="2.833629588438982"><ele>774.0</ele><time>2026-04-02T11:08:52Z</time></trkpt><trkpt lat="43.78009909045525" lon="2.8337322223242363"><ele>774.0</ele><time>2026-04-02T11:08:54Z</time></trkpt><trkpt lat="43.77988289240738" lon="2.8336711978990285"><ele>774.0</ele><time>2026-04-02T11:08:57Z</time></trkpt><trkpt lat="43.77975902977163" lon="2.8336131915109757"><ele>774.0</ele><time>2026-04-02T11:08:58Z</time></trkpt><trkpt lat="43.7796403222293" lon="2.8335231361482602"><ele>774.0</ele><time>2026-04-02T11:08:59Z</time></trkpt><trkpt lat="43.779522478739146" lon="2.8334562065561233"><ele>774.0</ele><time>2026-04-02T11:09:00Z</time></trkpt><trkpt lat="43.77941167943481" lon="2.833367890871378"><ele>768.6666666666666</ele><time>2026-04-02T11:09:01Z</time></trkpt><trkpt lat="43.779273255705455" lon="2.8332537970178646"><ele>763.3333333333333</ele><time>2026-04-02T11:09:02Z</time></trkpt><trkpt lat="43.779123728748125" lon="2.8331319667924575"><ele>758.0</ele><time>2026-04-02T11:09:03Z</time></trkpt><trkpt lat="43.77899145075945" lon="2.8329873100610428"><ele>758.0</ele><time>2026-04-02T11:09:04Z</time></trkpt><trkpt lat="43.77884712588463" lon="2.832854359019756"><ele>758.0</ele><time>2026-04-02T11:09:05Z</time></trkpt><trkpt lat="43.778703558461814" lon="2.8327419859603364"><ele>758.0</ele><time>2026-04-02T11:09:06Z</time></trkpt><trkpt lat="43.778575058415285" lon="2.8326098819974055"><ele>756.0</ele><time>2026-04-02T11:09:07Z</time></trkpt><trkpt lat="43.77845028908991" lon="2.832483794589217"><ele>754.0</ele><time>2026-04-02T11:09:08Z</time></trkpt><trkpt lat="43.77832050304272" lon="2.8323682499464793"><ele>752.0</ele><time>2026-04-02T11:09:09Z</time></trkpt><trkpt lat="43.77818249383513" lon="2.8322653168374776"><ele>752.0</ele><time>2026-04-02T11:09:10Z</time></trkpt><trkpt lat="43.77803699586786" lon="2.832170202075338"><ele>752.0</ele><time>2026-04-02T11:09:11Z</time></trkpt><trkpt lat="43.777899657870265" lon="2.8320695833463163"><ele>752.0</ele><time>2026-04-02T11:09:12Z</time></trkpt><trkpt lat="43.77775911767129" lon="2.8319620511182126"><ele>752.3333333333333</ele><time>2026-04-02T11:09:13Z</time></trkpt><trkpt lat="43.77761589984473" lon="2.83186185222982"><ele>752.6666666666666</ele><time>2026-04-02T11:09:14Z</time></trkpt><trkpt lat="43.77746432837269" lon="2.8317906362402474"><ele>753.0</ele><time>2026-04-02T11:09:15Z</time></trkpt><trkpt lat="43.777321915396" lon="2.8317464846823834"><ele>753.0</ele><time>2026-04-02T11:09:16Z</time></trkpt><trkpt lat="43.77718760527246" lon="2.8317147361287196"><ele>753.0</ele><time>2026-04-02T11:09:17Z</time></trkpt><trkpt lat="43.77706564040001" lon="2.8316895313351673"><ele>753.0</ele><time>2026-04-02T11:09:18Z</time></trkpt><trkpt lat="43.7769759666385" lon="2.831678035948173"><ele>753.0</ele><time>2026-04-02T11:09:19Z</time></trkpt><trkpt lat="43.77690488441573" lon="2.831718425388833"><ele>753.0</ele><time>2026-04-02T11:09:20Z</time></trkpt><trkpt lat="43.77686762066578" lon="2.83181510927184"><ele>752.5</ele><time>2026-04-02T11:09:21Z</time></trkpt><trkpt lat="43.776869482051545" lon="2.8319089404088293"><ele>752.0</ele><time>2026-04-02T11:09:22Z</time></trkpt><trkpt lat="43.776884872623945" lon="2.832013006091293"><ele>751.5</ele><time>2026-04-02T11:09:23Z</time></trkpt><trkpt lat="43.77692869771886" lon="2.8320910411337175"><ele>751.0</ele><time>2026-04-02T11:09:24Z</time></trkpt><trkpt lat="43.77699535422971" lon="2.832168098623255"><ele>750.5</ele><time>2026-04-02T11:09:25Z</time></trkpt><trkpt lat="43.77705366298099" lon="2.8322784556951293"><ele>750.0</ele><time>2026-04-02T11:09:26Z</time></trkpt><trkpt lat="43.77712624111331" lon="2.832442836441868"><ele>750.0</ele><time>2026-04-02T11:09:27Z</time></trkpt><trkpt lat="43.77717540353606" lon="2.8326191120599864"><ele>750.0</ele><time>2026-04-02T11:09:28Z</time></trkpt><trkpt lat="43.77724089768102" lon="2.832795984628405"><ele>750.0</ele><time>2026-04-02T11:09:29Z</time></trkpt><trkpt lat="43.77733036036036" lon="2.832998880903276"><ele>751.6666666666666</ele><time>2026-04-02T11:09:30Z</time></trkpt><trkpt lat="43.77737849109035" lon="2.8332063242000025"><ele>753.3333333333333</ele><time>2026-04-02T11:09:31Z</time></trkpt><trkpt lat="43.77745594015369" lon="2.8334175009899853"><ele>755.0</ele><time>2026-04-02T11:09:32Z</time></trkpt><trkpt lat="43.77751630962843" lon="2.8336247774722945"><ele>756.75</ele><time>2026-04-02T11:09:33Z</time></trkpt><trkpt lat="43.77756469784682" lon="2.8338223707831376"><ele>758.5</ele><time>2026-04-02T11:09:34Z</time></trkpt><trkpt lat="43.77762019901484" lon="2.834002247958929"><ele>760.25</ele><time>2026-04-02T11:09:35Z</time></trkpt><trkpt lat="43.77766655086519" lon="2.8341609445144926"><ele>762.0</ele><time>2026-04-02T11:09:36Z</time></trkpt><trkpt lat="43.777707130740296" lon="2.8343342717102753"><ele>753.0</ele><time>2026-04-02T11:09:37Z</time></trkpt><trkpt lat="43.777739237911234" lon="2.8345412076046093"><ele>744.0</ele><time>2026-04-02T11:09:38Z</time></trkpt><trkpt lat="43.77776749189846" lon="2.834754271428516"><ele>735.0</ele><time>2026-04-02T11:09:39Z</time></trkpt><trkpt lat="43.77780520258119" lon="2.834972391314485"><ele>739.0</ele><time>2026-04-02T11:09:40Z</time></trkpt><trkpt lat="43.77784743204723" lon="2.8351901710609786"><ele>743.0</ele><time>2026-04-02T11:09:41Z</time></trkpt><trkpt lat="43.77789195472135" lon="2.83540325229208"><ele>747.0</ele><time>2026-04-02T11:09:42Z</time></trkpt><trkpt lat="43.777935420009584" lon="2.8356106766699716"><ele>747.0</ele><time>2026-04-02T11:09:43Z</time></trkpt><trkpt lat="43.7779795324106" lon="2.8358134918812103"><ele>747.0</ele><time>2026-04-02T11:09:44Z</time></trkpt><trkpt lat="43.778033959781304" lon="2.83601508816771"><ele>747.0</ele><time>2026-04-02T11:09:45Z</time></trkpt><trkpt lat="43.77810189104271" lon="2.8361892200954566"><ele>751.0</ele><time>2026-04-02T11:09:46Z</time></trkpt><trkpt lat="43.77817153038531" lon="2.836368795322262"><ele>755.0</ele><time>2026-04-02T11:09:47Z</time></trkpt><trkpt lat="43.77826351574071" lon="2.836547633255558"><ele>759.0</ele><time>2026-04-02T11:09:48Z</time></trkpt><trkpt lat="43.77836392331048" lon="2.836736483061151"><ele>760.0</ele><time>2026-04-02T11:09:49Z</time></trkpt><trkpt lat="43.778454723460634" lon="2.8369242925684777"><ele>761.0</ele><time>2026-04-02T11:09:50Z</time></trkpt><trkpt lat="43.778542220166656" lon="2.8370984792634037"><ele>762.0</ele><time>2026-04-02T11:09:51Z</time></trkpt><trkpt lat="43.77860899526773" lon="2.837286446849443"><ele>754.0</ele><time>2026-04-02T11:09:52Z</time></trkpt><trkpt lat="43.77868140906943" lon="2.837468357050552"><ele>746.0</ele><time>2026-04-02T11:09:53Z</time></trkpt><trkpt lat="43.778729204209114" lon="2.8376655727104194"><ele>738.0</ele><time>2026-04-02T11:09:54Z</time></trkpt><trkpt lat="43.778773746158286" lon="2.83787852806898"><ele>738.0</ele><time>2026-04-02T11:09:55Z</time></trkpt><trkpt lat="43.778820403267176" lon="2.838091338980449"><ele>738.0</ele><time>2026-04-02T11:09:56Z</time></trkpt><trkpt lat="43.77886670801201" lon="2.8383103463778494"><ele>738.0</ele><time>2026-04-02T11:09:57Z</time></trkpt><trkpt lat="43.77891239695865" lon="2.8385291439147298"><ele>738.0</ele><time>2026-04-02T11:09:58Z</time></trkpt><trkpt lat="43.77896518768115" lon="2.8387644783705848"><ele>738.0</ele><time>2026-04-02T11:09:59Z</time></trkpt><trkpt lat="43.77902067746558" lon="2.8390105220712933"><ele>738.0</ele><time>2026-04-02T11:10:00Z</time></trkpt><trkpt lat="43.77907674929821" lon="2.839260660155261"><ele>739.3333333333334</ele><time>2026-04-02T11:10:01Z</time></trkpt><trkpt lat="43.77913539595096" lon="2.839505606208853"><ele>740.6666666666667</ele><time>2026-04-02T11:10:02Z</time></trkpt><trkpt lat="43.779217971141264" lon="2.8397375137104173"><ele>742.0</ele><time>2026-04-02T11:10:03Z</time></trkpt><trkpt lat="43.779302393075554" lon="2.8399689295194785"><ele>735.3333333333334</ele><time>2026-04-02T11:10:04Z</time></trkpt><trkpt lat="43.77938010122356" lon="2.840202394670327"><ele>728.6666666666666</ele><time>2026-04-02T11:10:05Z</time></trkpt><trkpt lat="43.77949181077542" lon="2.840408474528533"><ele>722.0</ele><time>2026-04-02T11:10:06Z</time></trkpt><trkpt lat="43.77959254907017" lon="2.8406091281231816"><ele>722.0</ele><time>2026-04-02T11:10:07Z</time></trkpt><trkpt lat="43.77968067591205" lon="2.8408359128783514"><ele>722.0</ele><time>2026-04-02T11:10:08Z</time></trkpt><trkpt lat="43.779775994853374" lon="2.8410769991435587"><ele>722.0</ele><time>2026-04-02T11:10:09Z</time></trkpt><trkpt lat="43.77986501966118" lon="2.8413074265512606"><ele>721.6666666666666</ele><time>2026-04-02T11:10:10Z</time></trkpt><trkpt lat="43.7799734095597" lon="2.841508961190587"><ele>721.3333333333334</ele><time>2026-04-02T11:10:11Z</time></trkpt><trkpt lat="43.78008168938613" lon="2.8417108506724738"><ele>721.0</ele><time>2026-04-02T11:10:12Z</time></trkpt><trkpt lat="43.78022523321576" lon="2.841884795147122"><ele>721.0</ele><time>2026-04-02T11:10:13Z</time></trkpt><trkpt lat="43.78039702642046" lon="2.8420227340462785"><ele>721.0</ele><time>2026-04-02T11:10:14Z</time></trkpt><trkpt lat="43.78058361668612" lon="2.8421231629748034"><ele>721.0</ele><time>2026-04-02T11:10:15Z</time></trkpt><trkpt lat="43.780774506754135" lon="2.8421884975255347"><ele>721.0</ele><time>2026-04-02T11:10:16Z</time></trkpt><trkpt lat="43.78095668995612" lon="2.8422204137879388"><ele>721.0</ele><time>2026-04-02T11:10:17Z</time></trkpt><trkpt lat="43.78113319651641" lon="2.842228285735438"><ele>721.0</ele><time>2026-04-02T11:10:18Z</time></trkpt><trkpt lat="43.78128635958466" lon="2.842237043321412"><ele>718.75</ele><time>2026-04-02T11:10:19Z</time></trkpt><trkpt lat="43.781398119521576" lon="2.8422536777367435"><ele>716.5</ele><time>2026-04-02T11:10:20Z</time></trkpt><trkpt lat="43.78150012541172" lon="2.842335599890382"><ele>714.25</ele><time>2026-04-02T11:10:21Z</time></trkpt><trkpt lat="43.78162198297987" lon="2.8424770448830117"><ele>712.0</ele><time>2026-04-02T11:10:22Z</time></trkpt><trkpt lat="43.78178580325835" lon="2.8426199513477313"><ele>709.6666666666667</ele><time>2026-04-02T11:10:23Z</time></trkpt><trkpt lat="43.78196596800211" lon="2.8427356703817344"><ele>707.3333333333334</ele><time>2026-04-02T11:10:24Z</time></trkpt><trkpt lat="43.782129005135594" lon="2.842836529977747"><ele>705.0</ele><time>2026-04-02T11:10:25Z</time></trkpt><trkpt lat="43.7822860505389" lon="2.842929500561799"><ele>705.0</ele><time>2026-04-02T11:10:26Z</time></trkpt><trkpt lat="43.78244829033512" lon="2.843022550449636"><ele>705.0</ele><time>2026-04-02T11:10:27Z</time></trkpt><trkpt lat="43.782607339365875" lon="2.84312086602413"><ele>705.0</ele><time>2026-04-02T11:10:28Z</time></trkpt><trkpt lat="43.7827664895162" lon="2.8432239060479327"><ele>704.0</ele><time>2026-04-02T11:10:29Z</time></trkpt><trkpt lat="43.78292614365544" lon="2.8433239456249644"><ele>703.0</ele><time>2026-04-02T11:10:30Z</time></trkpt><trkpt lat="43.78305894125409" lon="2.8434609533314963"><ele>702.0</ele><time>2026-04-02T11:10:31Z</time></trkpt><trkpt lat="43.78316557830702" lon="2.84361915967622"><ele>702.0</ele><time>2026-04-02T11:10:32Z</time></trkpt><trkpt lat="43.78322538470742" lon="2.8438014336114836"><ele>702.0</ele><time>2026-04-02T11:10:33Z</time></trkpt><trkpt lat="43.78328317425426" lon="2.8440150553766887"><ele>702.0</ele><time>2026-04-02T11:10:34Z</time></trkpt><trkpt lat="43.78333476716673" lon="2.844230056055476"><ele>701.25</ele><time>2026-04-02T11:10:35Z</time></trkpt><trkpt lat="43.78340344285247" lon="2.844394338015885"><ele>700.5</ele><time>2026-04-02T11:10:36Z</time></trkpt><trkpt lat="43.783462874203146" lon="2.8445483001432668"><ele>699.75</ele><time>2026-04-02T11:10:37Z</time></trkpt><trkpt lat="43.7835782172155" lon="2.844687714109396"><ele>699.0</ele><time>2026-04-02T11:10:38Z</time></trkpt><trkpt lat="43.78373154662745" lon="2.8448155028046824"><ele>699.0</ele><time>2026-04-02T11:10:39Z</time></trkpt><trkpt lat="43.78387577102155" lon="2.844918771571602"><ele>699.0</ele><time>2026-04-02T11:10:40Z</time></trkpt><trkpt lat="43.78399875931144" lon="2.8450225557950635"><ele>699.0</ele><time>2026-04-02T11:10:41Z</time></trkpt><trkpt lat="43.78411399989522" lon="2.8451022698344923"><ele>699.0</ele><time>2026-04-02T11:10:42Z</time></trkpt><trkpt lat="43.784241778418426" lon="2.845114055506708"><ele>700.5</ele><time>2026-04-02T11:10:43Z</time></trkpt><trkpt lat="43.784373526918586" lon="2.8450937827062663"><ele>702.0</ele><time>2026-04-02T11:10:44Z</time></trkpt><trkpt lat="43.78449556983517" lon="2.8451799101331123"><ele>703.5</ele><time>2026-04-02T11:10:45Z</time></trkpt><trkpt lat="43.78461473430362" lon="2.845348441420527"><ele>705.0</ele><time>2026-04-02T11:10:46Z</time></trkpt><trkpt lat="43.784767971678505" lon="2.845534036831671"><ele>702.3333333333334</ele><time>2026-04-02T11:10:47Z</time></trkpt><trkpt lat="43.7849182104497" lon="2.845721777205066"><ele>699.6666666666667</ele><time>2026-04-02T11:10:48Z</time></trkpt><trkpt lat="43.78506649171325" lon="2.8459197403762846"><ele>697.0</ele><time>2026-04-02T11:10:49Z</time></trkpt><trkpt lat="43.785190022148164" lon="2.84617259894192"><ele>697.0</ele><time>2026-04-02T11:10:50Z</time></trkpt><trkpt lat="43.785304353137654" lon="2.84645171567513"><ele>697.0</ele><time>2026-04-02T11:10:51Z</time></trkpt><trkpt lat="43.78544506018545" lon="2.8466863838106953"><ele>692.3333333333334</ele><time>2026-04-02T11:10:52Z</time></trkpt><trkpt lat="43.785575071812715" lon="2.8469111270197747"><ele>687.6666666666666</ele><time>2026-04-02T11:10:53Z</time></trkpt><trkpt lat="43.785678829109116" lon="2.8471510358330865"><ele>683.0</ele><time>2026-04-02T11:10:54Z</time></trkpt><trkpt lat="43.7857605728952" lon="2.847402137136129"><ele>679.0</ele><time>2026-04-02T11:10:55Z</time></trkpt><trkpt lat="43.78582903933485" lon="2.847667099326021"><ele>675.0</ele><time>2026-04-02T11:10:56Z</time></trkpt><trkpt lat="43.785894874416456" lon="2.8479261018923885"><ele>671.0</ele><time>2026-04-02T11:10:57Z</time></trkpt><trkpt lat="43.78594105512288" lon="2.848197333346372"><ele>667.3333333333333</ele><time>2026-04-02T11:10:58Z</time></trkpt><trkpt lat="43.78599428582026" lon="2.848463186390405"><ele>663.6666666666666</ele><time>2026-04-02T11:10:59Z</time></trkpt><trkpt lat="43.78604595922945" lon="2.84873093570067"><ele>660.0</ele><time>2026-04-02T11:11:00Z</time></trkpt><trkpt lat="43.786085561348294" lon="2.8489967882471143"><ele>665.3333333333334</ele><time>2026-04-02T11:11:01Z</time></trkpt><trkpt lat="43.78612232266949" lon="2.8492560145479096"><ele>670.6666666666667</ele><time>2026-04-02T11:11:02Z</time></trkpt><trkpt lat="43.78615169645217" lon="2.8495055478417366"><ele>676.0</ele><time>2026-04-02T11:11:03Z</time></trkpt><trkpt lat="43.78617460568153" lon="2.849753331704055"><ele>676.0</ele><time>2026-04-02T11:11:04Z</time></trkpt><trkpt lat="43.78618645125958" lon="2.8499923504960107"><ele>676.0</ele><time>2026-04-02T11:11:05Z</time></trkpt><trkpt lat="43.786167302485254" lon="2.850232601377204"><ele>676.0</ele><time>2026-04-02T11:11:06Z</time></trkpt><trkpt lat="43.78612697571968" lon="2.8504836820115504"><ele>672.5</ele><time>2026-04-02T11:11:07Z</time></trkpt><trkpt lat="43.786089537853705" lon="2.850702374024884"><ele>669.0</ele><time>2026-04-02T11:11:08Z</time></trkpt><trkpt lat="43.78606955319788" lon="2.850873299315655"><ele>665.5</ele><time>2026-04-02T11:11:09Z</time></trkpt><trkpt lat="43.78609264316268" lon="2.8510104479392577"><ele>662.0</ele><time>2026-04-02T11:11:10Z</time></trkpt><trkpt lat="43.7861494241548" lon="2.851119407480681"><ele>656.0</ele><time>2026-04-02T11:11:11Z</time></trkpt><trkpt lat="43.78624306560284" lon="2.8511828315423955"><ele>650.0</ele><time>2026-04-02T11:11:12Z</time></trkpt><trkpt lat="43.786351036452956" lon="2.8511850762432105"><ele>644.0</ele><time>2026-04-02T11:11:13Z</time></trkpt><trkpt lat="43.786475181725336" lon="2.851169922336344"><ele>638.0</ele><time>2026-04-02T11:11:14Z</time></trkpt><trkpt lat="43.78661340447326" lon="2.851172650538729"><ele>638.0</ele><time>2026-04-02T11:11:15Z</time></trkpt><trkpt lat="43.78677294344899" lon="2.8512258359368428"><ele>638.0</ele><time>2026-04-02T11:11:16Z</time></trkpt><trkpt lat="43.786925184925174" lon="2.851264615655736"><ele>638.0</ele><time>2026-04-02T11:11:17Z</time></trkpt><trkpt lat="43.78705543058283" lon="2.8513399561359445"><ele>642.0</ele><time>2026-04-02T11:11:18Z</time></trkpt><trkpt lat="43.787165557727626" lon="2.8514745689581185"><ele>646.0</ele><time>2026-04-02T11:11:19Z</time></trkpt><trkpt lat="43.78728694889974" lon="2.851631335150314"><ele>650.0</ele><time>2026-04-02T11:11:20Z</time></trkpt><trkpt lat="43.787439520591406" lon="2.851756084994044"><ele>650.3333333333333</ele><time>2026-04-02T11:11:21Z</time></trkpt><trkpt lat="43.78757094397217" lon="2.851924462078992"><ele>650.6666666666666</ele><time>2026-04-02T11:11:22Z</time></trkpt><trkpt lat="43.787683878975265" lon="2.852106600519749"><ele>651.0</ele><time>2026-04-02T11:11:23Z</time></trkpt><trkpt lat="43.787790518888514" lon="2.8523270413145143"><ele>651.0</ele><time>2026-04-02T11:11:24Z</time></trkpt><trkpt lat="43.78789345396933" lon="2.852522620502515"><ele>651.0</ele><time>2026-04-02T11:11:25Z</time></trkpt><trkpt lat="43.78797121533334" lon="2.8527017522414724"><ele>651.0</ele><time>2026-04-02T11:11:26Z</time></trkpt><trkpt lat="43.78801673919292" lon="2.85287725253938"><ele>649.0</ele><time>2026-04-02T11:11:27Z</time></trkpt><trkpt lat="43.78804701339847" lon="2.853051366331594"><ele>647.0</ele><time>2026-04-02T11:11:28Z</time></trkpt><trkpt lat="43.78807523514432" lon="2.8532068847926384"><ele>645.0</ele><time>2026-04-02T11:11:29Z</time></trkpt><trkpt lat="43.7880938930309" lon="2.8533097003938295"><ele>643.0</ele><time>2026-04-02T11:11:30Z</time></trkpt><trkpt lat="43.7881268972612" lon="2.853483341862627"><ele>640.8333333333334</ele><time>2026-04-02T11:12:56Z</time></trkpt><trkpt lat="43.788150589691824" lon="2.853596666563285"><ele>638.6666666666667</ele><time>2026-04-02T11:12:57Z</time></trkpt><trkpt lat="43.788178954352816" lon="2.8537044416675994"><ele>636.5</ele><time>2026-04-02T11:12:58Z</time></trkpt><trkpt lat="43.78821084360686" lon="2.853802609392564"><ele>634.3333333333334</ele><time>2026-04-02T11:12:59Z</time></trkpt><trkpt lat="43.78824545455002" lon="2.853947822817665"><ele>632.1666666666666</ele><time>2026-04-02T11:13:01Z</time></trkpt><trkpt lat="43.788161799016066" lon="2.8539632625110225"><ele>630.0</ele><time>2026-04-02T11:13:04Z</time></trkpt><trkpt lat="43.78812101695361" lon="2.8538632909015154"><ele>630.0</ele><time>2026-04-02T11:13:05Z</time></trkpt><trkpt lat="43.78811181876144" lon="2.853710608943667"><ele>630.0</ele><time>2026-04-02T11:13:06Z</time></trkpt><trkpt lat="43.78806644935564" lon="2.8535419511653366"><ele>630.0</ele><time>2026-04-02T11:13:07Z</time></trkpt><trkpt lat="43.78802747269448" lon="2.8533389256532367"><ele>630.0</ele><time>2026-04-02T11:13:08Z</time></trkpt><trkpt lat="43.787960296389194" lon="2.853147168653253"><ele>634.3333333333334</ele><time>2026-04-02T11:13:09Z</time></trkpt><trkpt lat="43.78788202191146" lon="2.852935626636637"><ele>638.6666666666667</ele><time>2026-04-02T11:13:10Z</time></trkpt><trkpt lat="43.78780533432645" lon="2.85273925088798"><ele>643.0</ele><time>2026-04-02T11:13:11Z</time></trkpt><trkpt lat="43.78769973887038" lon="2.852565361579961"><ele>640.8</ele><time>2026-04-02T11:13:12Z</time></trkpt><trkpt lat="43.78759774844269" lon="2.8524308475023323"><ele>638.5999999999999</ele><time>2026-04-02T11:13:13Z</time></trkpt><trkpt lat="43.787512647039165" lon="2.852319550069137"><ele>636.4000000000001</ele><time>2026-04-02T11:13:14Z</time></trkpt><trkpt lat="43.78744232522711" lon="2.852237595825379"><ele>634.2</ele><time>2026-04-02T11:13:15Z</time></trkpt><trkpt lat="43.787360306864784" lon="2.852213596752777"><ele>632.0</ele><time>2026-04-02T11:13:16Z</time></trkpt><trkpt lat="43.78727626954524" lon="2.852237870235345"><ele>632.0</ele><time>2026-04-02T11:13:17Z</time></trkpt><trkpt lat="43.78719403487701" lon="2.8522844315711793"><ele>632.0</ele><time>2026-04-02T11:13:18Z</time></trkpt><trkpt lat="43.78713894575559" lon="2.852365389561802"><ele>632.0</ele><time>2026-04-02T11:13:19Z</time></trkpt><trkpt lat="43.78709962214432" lon="2.852475406087367"><ele>632.0</ele><time>2026-04-02T11:13:20Z</time></trkpt><trkpt lat="43.78705212064367" lon="2.852584931184807"><ele>632.0</ele><time>2026-04-02T11:13:21Z</time></trkpt><trkpt lat="43.78701233042659" lon="2.852689378418184"><ele>632.0</ele><time>2026-04-02T11:13:22Z</time></trkpt><trkpt lat="43.786981220560456" lon="2.8527812764259357"><ele>630.8000000000001</ele><time>2026-04-02T11:13:23Z</time></trkpt><trkpt lat="43.78696166361163" lon="2.852869952876133"><ele>629.6</ele><time>2026-04-02T11:13:24Z</time></trkpt><trkpt lat="43.786928643344844" lon="2.852966916332982"><ele>628.4000000000001</ele><time>2026-04-02T11:13:26Z</time></trkpt><trkpt lat="43.787031351929" lon="2.853089382221626"><ele>627.2</ele><time>2026-04-02T11:13:31Z</time></trkpt><trkpt lat="43.7870775298756" lon="2.853175469952123"><ele>626.0</ele><time>2026-04-02T11:13:32Z</time></trkpt><trkpt lat="43.787120964692114" lon="2.8532935869906435"><ele>626.0</ele><time>2026-04-02T11:13:33Z</time></trkpt><trkpt lat="43.787169563308176" lon="2.853432356330536"><ele>626.0</ele><time>2026-04-02T11:13:34Z</time></trkpt><trkpt lat="43.78722683484548" lon="2.8535852121755587"><ele>626.0</ele><time>2026-04-02T11:13:35Z</time></trkpt><trkpt lat="43.78728124064233" lon="2.8537328400598097"><ele>626.0</ele><time>2026-04-02T11:13:36Z</time></trkpt><trkpt lat="43.78733248158046" lon="2.8538920890853405"><ele>626.25</ele><time>2026-04-02T11:13:37Z</time></trkpt><trkpt lat="43.78737691778667" lon="2.8540539799955678"><ele>626.5</ele><time>2026-04-02T11:13:38Z</time></trkpt><trkpt lat="43.78741767026857" lon="2.8542183505455485"><ele>626.75</ele><time>2026-04-02T11:13:39Z</time></trkpt><trkpt lat="43.787457056906916" lon="2.8543804863217406"><ele>627.0</ele><time>2026-04-02T11:13:40Z</time></trkpt><trkpt lat="43.787494339100874" lon="2.854544547253785"><ele>625.5</ele><time>2026-04-02T11:13:41Z</time></trkpt><trkpt lat="43.78753878429993" lon="2.854709591538851"><ele>624.0</ele><time>2026-04-02T11:13:42Z</time></trkpt><trkpt lat="43.787609083463664" lon="2.854857872819454"><ele>622.5</ele><time>2026-04-02T11:13:43Z</time></trkpt><trkpt lat="43.78767726517301" lon="2.8550103805101807"><ele>621.0</ele><time>2026-04-02T11:13:44Z</time></trkpt><trkpt lat="43.787777067226216" lon="2.855138303980734"><ele>621.0</ele><time>2026-04-02T11:13:45Z</time></trkpt><trkpt lat="43.78789442097749" lon="2.855246919218802"><ele>621.0</ele><time>2026-04-02T11:13:46Z</time></trkpt><trkpt lat="43.78798877362856" lon="2.8553581634218275"><ele>621.0</ele><time>2026-04-02T11:13:47Z</time></trkpt><trkpt lat="43.788071728911675" lon="2.855455833712389"><ele>621.0</ele><time>2026-04-02T11:13:48Z</time></trkpt><trkpt lat="43.78814801008636" lon="2.855560746905714"><ele>621.0</ele><time>2026-04-02T11:13:49Z</time></trkpt><trkpt lat="43.78822027396703" lon="2.8556579333824574"><ele>621.0</ele><time>2026-04-02T11:13:50Z</time></trkpt><trkpt lat="43.78829408066723" lon="2.855746782823217"><ele>621.0</ele><time>2026-04-02T11:13:51Z</time></trkpt><trkpt lat="43.78838055334361" lon="2.8558070375335767"><ele>621.0</ele><time>2026-04-02T11:13:52Z</time></trkpt><trkpt lat="43.78845010196303" lon="2.85589772258075"><ele>621.0</ele><time>2026-04-02T11:13:53Z</time></trkpt><trkpt lat="43.788523983965305" lon="2.8559703627114414"><ele>622.4</ele><time>2026-04-02T11:13:54Z</time></trkpt><trkpt lat="43.78855915173847" lon="2.856071229073344"><ele>623.8</ele><time>2026-04-02T11:13:55Z</time></trkpt><trkpt lat="43.788578817053185" lon="2.8561783237839813"><ele>625.1999999999999</ele><time>2026-04-02T11:13:56Z</time></trkpt><trkpt lat="43.788481244783014" lon="2.856283577437148"><ele>626.6</ele><time>2026-04-02T11:13:57Z</time></trkpt><trkpt lat="43.78842224024507" lon="2.8564391816168686"><ele>628.0</ele><time>2026-04-02T11:13:58Z</time></trkpt><trkpt lat="43.78834106384455" lon="2.8566287338521126"><ele>632.0</ele><time>2026-04-02T11:13:59Z</time></trkpt><trkpt lat="43.78822045497767" lon="2.85683213214268"><ele>636.0</ele><time>2026-04-02T11:14:00Z</time></trkpt><trkpt lat="43.78806394522998" lon="2.857031869631483"><ele>640.0</ele><time>2026-04-02T11:14:01Z</time></trkpt><trkpt lat="43.78795392968685" lon="2.857253987336885"><ele>640.0</ele><time>2026-04-02T11:14:02Z</time></trkpt><trkpt lat="43.78785355448882" lon="2.8574478941372337"><ele>640.0</ele><time>2026-04-02T11:14:03Z</time></trkpt><trkpt lat="43.78777225241393" lon="2.857631704352959"><ele>640.0</ele><time>2026-04-02T11:14:04Z</time></trkpt><trkpt lat="43.787704030494524" lon="2.8578120270575886"><ele>639.5</ele><time>2026-04-02T11:14:05Z</time></trkpt><trkpt lat="43.78767667115291" lon="2.8579961373600082"><ele>639.0</ele><time>2026-04-02T11:14:06Z</time></trkpt><trkpt lat="43.78770640010086" lon="2.858176128126975"><ele>638.5</ele><time>2026-04-02T11:14:07Z</time></trkpt><trkpt lat="43.787775921204414" lon="2.8583256064995646"><ele>638.0</ele><time>2026-04-02T11:14:08Z</time></trkpt><trkpt lat="43.78788255210672" lon="2.858433875456468"><ele>634.0</ele><time>2026-04-02T11:14:09Z</time></trkpt><trkpt lat="43.78802934959562" lon="2.8585000517913746"><ele>630.0</ele><time>2026-04-02T11:14:10Z</time></trkpt><trkpt lat="43.7881972208023" lon="2.858609207981007"><ele>626.0</ele><time>2026-04-02T11:14:11Z</time></trkpt><trkpt lat="43.78837313939653" lon="2.8586948846476927"><ele>633.0</ele><time>2026-04-02T11:14:12Z</time></trkpt><trkpt lat="43.78855756968079" lon="2.85878412405205"><ele>640.0</ele><time>2026-04-02T11:14:13Z</time></trkpt><trkpt lat="43.78873020573" lon="2.858893235058071"><ele>647.0</ele><time>2026-04-02T11:14:14Z</time></trkpt><trkpt lat="43.788870184254186" lon="2.8590496767991045"><ele>647.0</ele><time>2026-04-02T11:14:15Z</time></trkpt><trkpt lat="43.78895541364074" lon="2.8592434095672203"><ele>647.0</ele><time>2026-04-02T11:14:16Z</time></trkpt><trkpt lat="43.789040073194954" lon="2.8594737249440527"><ele>647.0</ele><time>2026-04-02T11:14:17Z</time></trkpt><trkpt lat="43.78912788391593" lon="2.8597241603326564"><ele>642.6666666666666</ele><time>2026-04-02T11:14:18Z</time></trkpt><trkpt lat="43.78922163315835" lon="2.8599915323741834"><ele>638.3333333333334</ele><time>2026-04-02T11:14:19Z</time></trkpt><trkpt lat="43.789319193075244" lon="2.860269772297968"><ele>634.0</ele><time>2026-04-02T11:14:20Z</time></trkpt><trkpt lat="43.78941030953914" lon="2.8605299391822476"><ele>641.6666666666667</ele><time>2026-04-02T11:14:21Z</time></trkpt><trkpt lat="43.789500679519605" lon="2.8607935414591643"><ele>649.3333333333334</ele><time>2026-04-02T11:14:22Z</time></trkpt><trkpt lat="43.78957303589121" lon="2.861072706632913"><ele>657.0</ele><time>2026-04-02T11:14:23Z</time></trkpt><trkpt lat="43.789614643989744" lon="2.861360548856743"><ele>657.0</ele><time>2026-04-02T11:14:24Z</time></trkpt><trkpt lat="43.78962789794196" lon="2.8616667584770306"><ele>657.0</ele><time>2026-04-02T11:14:25Z</time></trkpt><trkpt lat="43.78962799762686" lon="2.861977677950004"><ele>657.0</ele><time>2026-04-02T11:14:26Z</time></trkpt><trkpt lat="43.78962900165001" lon="2.8622626100848074"><ele>655.3333333333334</ele><time>2026-04-02T11:14:27Z</time></trkpt><trkpt lat="43.7896321178833" lon="2.8625170665360793"><ele>653.6666666666667</ele><time>2026-04-02T11:14:28Z</time></trkpt><trkpt lat="43.78964462956171" lon="2.862771788432385"><ele>652.0</ele><time>2026-04-02T11:14:29Z</time></trkpt><trkpt lat="43.78969431480654" lon="2.8630420833010364"><ele>651.3333333333334</ele><time>2026-04-02T11:14:30Z</time></trkpt><trkpt lat="43.789805467667954" lon="2.8632669707087417"><ele>650.6666666666666</ele><time>2026-04-02T11:14:31Z</time></trkpt><trkpt lat="43.78987434975295" lon="2.8634897021420085"><ele>650.0</ele><time>2026-04-02T11:14:32Z</time></trkpt><trkpt lat="43.78985693157242" lon="2.8637052593313332"><ele>650.0</ele><time>2026-04-02T11:14:33Z</time></trkpt><trkpt lat="43.78977362348005" lon="2.86390332711207"><ele>650.0</ele><time>2026-04-02T11:14:34Z</time></trkpt><trkpt lat="43.78963549668928" lon="2.8640561186994993"><ele>650.0</ele><time>2026-04-02T11:14:35Z</time></trkpt><trkpt lat="43.78958519886281" lon="2.864285036533732"><ele>652.0</ele><time>2026-04-02T11:14:36Z</time></trkpt><trkpt lat="43.78958821608488" lon="2.864512884385947"><ele>654.0</ele><time>2026-04-02T11:14:37Z</time></trkpt><trkpt lat="43.78964903635849" lon="2.86476588111208"><ele>656.0</ele><time>2026-04-02T11:14:38Z</time></trkpt><trkpt lat="43.789691626816335" lon="2.8650326878537196"><ele>656.3333333333333</ele><time>2026-04-02T11:14:39Z</time></trkpt><trkpt lat="43.78972243974078" lon="2.8653105387440596"><ele>656.6666666666666</ele><time>2026-04-02T11:14:40Z</time></trkpt><trkpt lat="43.78974696115465" lon="2.8655864971796676"><ele>657.0</ele><time>2026-04-02T11:14:41Z</time></trkpt><trkpt lat="43.7897747601397" lon="2.865854567724338"><ele>655.0</ele><time>2026-04-02T11:14:42Z</time></trkpt><trkpt lat="43.78981004403665" lon="2.8661031986010737"><ele>653.0</ele><time>2026-04-02T11:14:43Z</time></trkpt><trkpt lat="43.78985199900995" lon="2.8663242746886177"><ele>651.0</ele><time>2026-04-02T11:14:44Z</time></trkpt><trkpt lat="43.789898160249024" lon="2.866522860909849"><ele>651.0</ele><time>2026-04-02T11:14:45Z</time></trkpt><trkpt lat="43.78994452929855" lon="2.8667063366309886"><ele>651.0</ele><time>2026-04-02T11:14:46Z</time></trkpt><trkpt lat="43.79009096203314" lon="2.86684334659871"><ele>651.0</ele><time>2026-04-02T11:14:47Z</time></trkpt><trkpt lat="43.790211928695804" lon="2.8669906643348426"><ele>650.0</ele><time>2026-04-02T11:14:48Z</time></trkpt><trkpt lat="43.7903711667151" lon="2.867104301337822"><ele>649.0</ele><time>2026-04-02T11:14:49Z</time></trkpt><trkpt lat="43.79054169766802" lon="2.8672107313469013"><ele>648.0</ele><time>2026-04-02T11:14:50Z</time></trkpt><trkpt lat="43.79069520885678" lon="2.867318172244799"><ele>648.0</ele><time>2026-04-02T11:14:51Z</time></trkpt><trkpt lat="43.79085837699089" lon="2.8673892075187917"><ele>648.0</ele><time>2026-04-02T11:14:52Z</time></trkpt><trkpt lat="43.791006926068995" lon="2.8674136382526236"><ele>648.0</ele><time>2026-04-02T11:14:53Z</time></trkpt><trkpt lat="43.791127640329464" lon="2.8673875029459226"><ele>648.0</ele><time>2026-04-02T11:14:54Z</time></trkpt><trkpt lat="43.791249051027144" lon="2.8672882232651116"><ele>646.6666666666666</ele><time>2026-04-02T11:14:55Z</time></trkpt><trkpt lat="43.79136840762183" lon="2.867088731371844"><ele>645.3333333333333</ele><time>2026-04-02T11:14:56Z</time></trkpt><trkpt lat="43.7914922887244" lon="2.866848442157616"><ele>644.0</ele><time>2026-04-02T11:14:57Z</time></trkpt><trkpt lat="43.79164028373096" lon="2.866594920875553"><ele>649.5</ele><time>2026-04-02T11:14:58Z</time></trkpt><trkpt lat="43.79178349449762" lon="2.8663705192613995"><ele>655.0</ele><time>2026-04-02T11:14:59Z</time></trkpt><trkpt lat="43.791944662577556" lon="2.8661350304281603"><ele>662.5</ele><time>2026-04-02T11:15:00Z</time></trkpt><trkpt lat="43.792134525477124" lon="2.8658910312632884"><ele>670.0</ele><time>2026-04-02T11:15:01Z</time></trkpt><trkpt lat="43.79235213911115" lon="2.865655927602455"><ele>670.0</ele><time>2026-04-02T11:15:02Z</time></trkpt><trkpt lat="43.792562537256096" lon="2.865458711564086"><ele>670.0</ele><time>2026-04-02T11:15:03Z</time></trkpt><trkpt lat="43.792770799719094" lon="2.8653035156703397"><ele>668.5</ele><time>2026-04-02T11:15:04Z</time></trkpt><trkpt lat="43.792980689530005" lon="2.8651372374641566"><ele>667.0</ele><time>2026-04-02T11:15:05Z</time></trkpt><trkpt lat="43.79318789616491" lon="2.8649626193350035"><ele>669.5</ele><time>2026-04-02T11:15:06Z</time></trkpt><trkpt lat="43.79341491107526" lon="2.8648043516790462"><ele>672.0</ele><time>2026-04-02T11:15:07Z</time></trkpt><trkpt lat="43.79362127524304" lon="2.8646560486969093"><ele>672.0</ele><time>2026-04-02T11:15:08Z</time></trkpt><trkpt lat="43.79381066237621" lon="2.864512019941176"><ele>672.0</ele><time>2026-04-02T11:15:09Z</time></trkpt><trkpt lat="43.793984630813135" lon="2.8643964330105125"><ele>672.0</ele><time>2026-04-02T11:15:10Z</time></trkpt><trkpt lat="43.79415510157498" lon="2.8643125607574094"><ele>674.0</ele><time>2026-04-02T11:15:11Z</time></trkpt><trkpt lat="43.79430768038471" lon="2.864248249883616"><ele>676.0</ele><time>2026-04-02T11:15:12Z</time></trkpt><trkpt lat="43.79440920171713" lon="2.8641756928103352"><ele>678.0</ele><time>2026-04-02T11:15:13Z</time></trkpt><trkpt lat="43.79447342541743" lon="2.8640401821797026"><ele>680.0</ele><time>2026-04-02T11:15:14Z</time></trkpt><trkpt lat="43.79449560952908" lon="2.8638207595900282"><ele>680.0</ele><time>2026-04-02T11:15:15Z</time></trkpt><trkpt lat="43.79453057515956" lon="2.8636065953184966"><ele>680.0</ele><time>2026-04-02T11:15:16Z</time></trkpt><trkpt lat="43.79459829252302" lon="2.8634461782190335"><ele>680.0</ele><time>2026-04-02T11:15:17Z</time></trkpt><trkpt lat="43.79468582006158" lon="2.8633651084552554"><ele>680.0</ele><time>2026-04-02T11:15:18Z</time></trkpt><trkpt lat="43.7947964309464" lon="2.8634225650765517"><ele>680.0</ele><time>2026-04-02T11:15:19Z</time></trkpt><trkpt lat="43.79488748341973" lon="2.863497445778069"><ele>680.0</ele><time>2026-04-02T11:15:20Z</time></trkpt><trkpt lat="43.79496864305609" lon="2.8636428644791296"><ele>680.0</ele><time>2026-04-02T11:15:21Z</time></trkpt><trkpt lat="43.79507284371507" lon="2.8637867534763988"><ele>680.0</ele><time>2026-04-02T11:15:22Z</time></trkpt><trkpt lat="43.79518689092484" lon="2.863897912461799"><ele>682.0</ele><time>2026-04-02T11:15:23Z</time></trkpt><trkpt lat="43.795333617867435" lon="2.8639644804475544"><ele>684.0</ele><time>2026-04-02T11:15:24Z</time></trkpt><trkpt lat="43.79551207400018" lon="2.863975365968106"><ele>686.0</ele><time>2026-04-02T11:15:25Z</time></trkpt><trkpt lat="43.7957163569375" lon="2.863988396665421"><ele>686.0</ele><time>2026-04-02T11:15:26Z</time></trkpt><trkpt lat="43.79593405934952" lon="2.8640237546896965"><ele>686.0</ele><time>2026-04-02T11:15:27Z</time></trkpt><trkpt lat="43.79612774623734" lon="2.8640654190978445"><ele>686.0</ele><time>2026-04-02T11:15:28Z</time></trkpt><trkpt lat="43.796293211217765" lon="2.864086183061083"><ele>687.0</ele><time>2026-04-02T11:15:29Z</time></trkpt><trkpt lat="43.79644558293668" lon="2.864046277878268"><ele>688.0</ele><time>2026-04-02T11:15:30Z</time></trkpt><trkpt lat="43.79657712976938" lon="2.8639466645111935"><ele>689.0</ele><time>2026-04-02T11:15:31Z</time></trkpt><trkpt lat="43.79669089613797" lon="2.8638387887318113"><ele>690.0</ele><time>2026-04-02T11:15:32Z</time></trkpt><trkpt lat="43.79680448440947" lon="2.863821460443167"><ele>692.8</ele><time>2026-04-02T11:15:33Z</time></trkpt><trkpt lat="43.796905105459906" lon="2.863868904552309"><ele>695.6</ele><time>2026-04-02T11:15:34Z</time></trkpt><trkpt lat="43.79697118324153" lon="2.863968388176263"><ele>698.4000000000001</ele><time>2026-04-02T11:15:35Z</time></trkpt><trkpt lat="43.796981592023684" lon="2.8640970818311313"><ele>701.2</ele><time>2026-04-02T11:15:36Z</time></trkpt><trkpt lat="43.796961730755676" lon="2.8642425097092037"><ele>704.0</ele><time>2026-04-02T11:15:37Z</time></trkpt><trkpt lat="43.796925862487086" lon="2.8644253487863582"><ele>704.0</ele><time>2026-04-02T11:15:38Z</time></trkpt><trkpt lat="43.796909322664256" lon="2.864616918357954"><ele>704.0</ele><time>2026-04-02T11:15:39Z</time></trkpt><trkpt lat="43.796918450913964" lon="2.864798433684852"><ele>704.0</ele><time>2026-04-02T11:15:40Z</time></trkpt><trkpt lat="43.79697863395111" lon="2.8649432105952815"><ele>704.0</ele><time>2026-04-02T11:15:41Z</time></trkpt><trkpt lat="43.797094449150954" lon="2.86503521486047"><ele>699.6666666666666</ele><time>2026-04-02T11:15:42Z</time></trkpt><trkpt lat="43.79725201649397" lon="2.865117367180263"><ele>695.3333333333334</ele><time>2026-04-02T11:15:43Z</time></trkpt><trkpt lat="43.79743027328424" lon="2.8652000794713524"><ele>691.0</ele><time>2026-04-02T11:15:44Z</time></trkpt><trkpt lat="43.79760437556319" lon="2.865326953456632"><ele>691.25</ele><time>2026-04-02T11:15:45Z</time></trkpt><trkpt lat="43.79774466193686" lon="2.8653853593153156"><ele>691.5</ele><time>2026-04-02T11:15:46Z</time></trkpt><trkpt lat="43.797874225630295" lon="2.865456461849724"><ele>691.75</ele><time>2026-04-02T11:15:47Z</time></trkpt><trkpt lat="43.798013090872416" lon="2.8654564877704845"><ele>692.0</ele><time>2026-04-02T11:15:48Z</time></trkpt><trkpt lat="43.79816564798929" lon="2.8653987410289505"><ele>692.0</ele><time>2026-04-02T11:15:49Z</time></trkpt><trkpt lat="43.7983112518961" lon="2.865272373417465"><ele>692.0</ele><time>2026-04-02T11:15:50Z</time></trkpt><trkpt lat="43.79846179483716" lon="2.8651031643510056"><ele>692.0</ele><time>2026-04-02T11:15:51Z</time></trkpt><trkpt lat="43.79861713992038" lon="2.864935453504472"><ele>695.3333333333333</ele><time>2026-04-02T11:15:52Z</time></trkpt><trkpt lat="43.79876633032735" lon="2.864780449016749"><ele>698.6666666666666</ele><time>2026-04-02T11:15:53Z</time></trkpt><trkpt lat="43.79889066927263" lon="2.864639611610797"><ele>702.0</ele><time>2026-04-02T11:15:54Z</time></trkpt><trkpt lat="43.79901702320692" lon="2.864554585433103"><ele>702.0</ele><time>2026-04-02T11:15:55Z</time></trkpt><trkpt lat="43.79913766607329" lon="2.8645248036414666"><ele>702.0</ele><time>2026-04-02T11:15:56Z</time></trkpt><trkpt lat="43.79925222969031" lon="2.8645646300561127"><ele>702.0</ele><time>2026-04-02T11:15:57Z</time></trkpt><trkpt lat="43.799346142493896" lon="2.8646759237885737"><ele>702.0</ele><time>2026-04-02T11:15:58Z</time></trkpt><trkpt lat="43.79938038071997" lon="2.864834846036383"><ele>703.3333333333334</ele><time>2026-04-02T11:15:59Z</time></trkpt><trkpt lat="43.799365192540066" lon="2.8649969420876396"><ele>704.6666666666667</ele><time>2026-04-02T11:16:00Z</time></trkpt><trkpt lat="43.79931998377186" lon="2.8652147278993425"><ele>706.0</ele><time>2026-04-02T11:16:01Z</time></trkpt><trkpt lat="43.79925815348007" lon="2.8654691816076547"><ele>706.0</ele><time>2026-04-02T11:16:02Z</time></trkpt><trkpt lat="43.7991891745898" lon="2.8657512001458474"><ele>706.0</ele><time>2026-04-02T11:16:03Z</time></trkpt><trkpt lat="43.79915068932449" lon="2.8660137846116385"><ele>706.0</ele><time>2026-04-02T11:16:04Z</time></trkpt><trkpt lat="43.79910121492913" lon="2.866237720439488"><ele>706.0</ele><time>2026-04-02T11:16:05Z</time></trkpt><trkpt lat="43.79909320709421" lon="2.866458132420735"><ele>706.0</ele><time>2026-04-02T11:16:06Z</time></trkpt><trkpt lat="43.79915135157098" lon="2.8666927624104206"><ele>706.0</ele><time>2026-04-02T11:16:07Z</time></trkpt><trkpt lat="43.799279251264934" lon="2.8668956063309814"><ele>709.6666666666667</ele><time>2026-04-02T11:16:08Z</time></trkpt><trkpt lat="43.799450244735596" lon="2.867067151323635"><ele>713.3333333333334</ele><time>2026-04-02T11:16:09Z</time></trkpt><trkpt lat="43.79962451747505" lon="2.8672541176814175"><ele>717.0</ele><time>2026-04-02T11:16:10Z</time></trkpt><trkpt lat="43.799788603646746" lon="2.8674435565199814"><ele>716.0</ele><time>2026-04-02T11:16:11Z</time></trkpt><trkpt lat="43.799936986370255" lon="2.8676273078151304"><ele>715.0</ele><time>2026-04-02T11:16:12Z</time></trkpt><trkpt lat="43.800043616765976" lon="2.8678162494521637"><ele>714.0</ele><time>2026-04-02T11:16:13Z</time></trkpt><trkpt lat="43.80012569439261" lon="2.8680326895932597"><ele>715.3333333333334</ele><time>2026-04-02T11:16:14Z</time></trkpt><trkpt lat="43.80017198156453" lon="2.868286221480347"><ele>716.6666666666667</ele><time>2026-04-02T11:16:15Z</time></trkpt><trkpt lat="43.80019491772203" lon="2.8685614180587113"><ele>718.0</ele><time>2026-04-02T11:16:16Z</time></trkpt><trkpt lat="43.80021151113278" lon="2.868855293470327"><ele>718.0</ele><time>2026-04-02T11:16:17Z</time></trkpt><trkpt lat="43.80022541914762" lon="2.869142531088838"><ele>718.0</ele><time>2026-04-02T11:16:18Z</time></trkpt><trkpt lat="43.80023539188139" lon="2.869396133973353"><ele>718.0</ele><time>2026-04-02T11:16:19Z</time></trkpt><trkpt lat="43.80024506540533" lon="2.869613430621117"><ele>716.5999999999999</ele><time>2026-04-02T11:16:20Z</time></trkpt><trkpt lat="43.800256170252815" lon="2.869772266673579"><ele>715.1999999999999</ele><time>2026-04-02T11:16:21Z</time></trkpt><trkpt lat="43.800276185063446" lon="2.869890908493889"><ele>713.8</ele><time>2026-04-02T11:16:22Z</time></trkpt><trkpt lat="43.8003465365346" lon="2.8699732981898465"><ele>712.4</ele><time>2026-04-02T11:16:23Z</time></trkpt><trkpt lat="43.80042504486743" lon="2.8700230552228345"><ele>711.0</ele><time>2026-04-02T11:16:24Z</time></trkpt><trkpt lat="43.80049840082106" lon="2.870029074037545"><ele>711.0</ele><time>2026-04-02T11:16:25Z</time></trkpt><trkpt lat="43.80055808935155" lon="2.8699941215396394"><ele>711.0</ele><time>2026-04-02T11:16:26Z</time></trkpt><trkpt lat="43.800603630713034" lon="2.8699114196615576"><ele>711.0</ele><time>2026-04-02T11:16:27Z</time></trkpt><trkpt lat="43.800649624280396" lon="2.8697843813876496"><ele>711.0</ele><time>2026-04-02T11:16:28Z</time></trkpt><trkpt lat="43.800709012313895" lon="2.869591332895817"><ele>711.0</ele><time>2026-04-02T11:16:29Z</time></trkpt><trkpt lat="43.800783329458845" lon="2.869397764768408"><ele>713.3333333333334</ele><time>2026-04-02T11:16:30Z</time></trkpt><trkpt lat="43.80086732234005" lon="2.8691987272420296"><ele>715.6666666666667</ele><time>2026-04-02T11:16:31Z</time></trkpt><trkpt lat="43.80096011798501" lon="2.8689903112170523"><ele>718.0</ele><time>2026-04-02T11:16:32Z</time></trkpt><trkpt lat="43.801065416236035" lon="2.8687732290048182"><ele>713.0</ele><time>2026-04-02T11:16:33Z</time></trkpt><trkpt lat="43.80119461015223" lon="2.86857279949439"><ele>708.0</ele><time>2026-04-02T11:16:34Z</time></trkpt><trkpt lat="43.80132285950034" lon="2.8683736189011766"><ele>703.0</ele><time>2026-04-02T11:16:35Z</time></trkpt><trkpt lat="43.801404165767984" lon="2.8681617734083718"><ele>703.0</ele><time>2026-04-02T11:16:36Z</time></trkpt><trkpt lat="43.80150813783267" lon="2.8679571525910688"><ele>703.0</ele><time>2026-04-02T11:16:37Z</time></trkpt><trkpt lat="43.80163403500645" lon="2.8677793363034816"><ele>703.0</ele><time>2026-04-02T11:16:38Z</time></trkpt><trkpt lat="43.801784173990946" lon="2.867653684138431"><ele>702.3333333333334</ele><time>2026-04-02T11:16:39Z</time></trkpt><trkpt lat="43.801945194326635" lon="2.8675677795154986"><ele>701.6666666666666</ele><time>2026-04-02T11:16:40Z</time></trkpt><trkpt lat="43.80207739450563" lon="2.8674532966970143"><ele>701.0</ele><time>2026-04-02T11:16:41Z</time></trkpt><trkpt lat="43.802201186630626" lon="2.867363678381631"><ele>701.0</ele><time>2026-04-02T11:16:42Z</time></trkpt><trkpt lat="43.80231098982278" lon="2.867184339330755"><ele>701.0</ele><time>2026-04-02T11:16:43Z</time></trkpt><trkpt lat="43.802405300080856" lon="2.866937868962207"><ele>701.0</ele><time>2026-04-02T11:16:44Z</time></trkpt><trkpt lat="43.802494053997606" lon="2.8666798300584473"><ele>708.5</ele><time>2026-04-02T11:16:45Z</time></trkpt><trkpt lat="43.80259313988095" lon="2.866403798211377"><ele>716.0</ele><time>2026-04-02T11:16:46Z</time></trkpt><trkpt lat="43.8027007480877" lon="2.86611645557464"><ele>707.0</ele><time>2026-04-02T11:16:47Z</time></trkpt><trkpt lat="43.80280164814301" lon="2.865862457756575"><ele>698.0</ele><time>2026-04-02T11:16:48Z</time></trkpt><trkpt lat="43.80289500598312" lon="2.8656231778123358"><ele>689.0</ele><time>2026-04-02T11:16:49Z</time></trkpt><trkpt lat="43.8029815037913" lon="2.8653973147627423"><ele>689.0</ele><time>2026-04-02T11:16:50Z</time></trkpt><trkpt lat="43.80312261258856" lon="2.8652559440248995"><ele>689.0</ele><time>2026-04-02T11:16:51Z</time></trkpt><trkpt lat="43.80326812774447" lon="2.8651764098201298"><ele>689.0</ele><time>2026-04-02T11:16:52Z</time></trkpt><trkpt lat="43.80344967941674" lon="2.865086342117255"><ele>687.3333333333333</ele><time>2026-04-02T11:16:53Z</time></trkpt><trkpt lat="43.8035973330921" lon="2.864966006216438"><ele>685.6666666666666</ele><time>2026-04-02T11:16:54Z</time></trkpt><trkpt lat="43.803733406312965" lon="2.864828522294816"><ele>684.0</ele><time>2026-04-02T11:16:55Z</time></trkpt><trkpt lat="43.8038473274902" lon="2.864635140950083"><ele>684.0</ele><time>2026-04-02T11:16:56Z</time></trkpt><trkpt lat="43.80397454421507" lon="2.864517546259851"><ele>684.0</ele><time>2026-04-02T11:16:57Z</time></trkpt><trkpt lat="43.8041259316037" lon="2.8644374286676237"><ele>684.0</ele><time>2026-04-02T11:16:58Z</time></trkpt><trkpt lat="43.80430028117317" lon="2.864416159705616"><ele>680.3333333333334</ele><time>2026-04-02T11:16:59Z</time></trkpt><trkpt lat="43.8044809614346" lon="2.8643719479388197"><ele>676.6666666666667</ele><time>2026-04-02T11:17:00Z</time></trkpt><trkpt lat="43.804654468354094" lon="2.8643004016396283"><ele>673.0</ele><time>2026-04-02T11:17:01Z</time></trkpt><trkpt lat="43.80483078105215" lon="2.8642985200443367"><ele>673.0</ele><time>2026-04-02T11:17:02Z</time></trkpt><trkpt lat="43.80499815433587" lon="2.864355273868703"><ele>673.0</ele><time>2026-04-02T11:17:03Z</time></trkpt><trkpt lat="43.80514591324939" lon="2.8644757967347823"><ele>673.0</ele><time>2026-04-02T11:17:04Z</time></trkpt><trkpt lat="43.80531303759599" lon="2.864620540340598"><ele>673.6666666666667</ele><time>2026-04-02T11:17:05Z</time></trkpt><trkpt lat="43.80549095830718" lon="2.8647246011321115"><ele>674.3333333333334</ele><time>2026-04-02T11:17:06Z</time></trkpt><trkpt lat="43.805682587551296" lon="2.8647727532643095"><ele>675.0</ele><time>2026-04-02T11:17:07Z</time></trkpt><trkpt lat="43.80589235233365" lon="2.864792991865637"><ele>675.5</ele><time>2026-04-02T11:17:08Z</time></trkpt><trkpt lat="43.806121656399235" lon="2.8648160142480097"><ele>676.0</ele><time>2026-04-02T11:17:09Z</time></trkpt><trkpt lat="43.806345390454105" lon="2.86485666144118"><ele>676.0</ele><time>2026-04-02T11:17:10Z</time></trkpt><trkpt lat="43.80656046547647" lon="2.8649023779205516"><ele>676.0</ele><time>2026-04-02T11:17:11Z</time></trkpt><trkpt lat="43.80676671583019" lon="2.864951914685181"><ele>676.0</ele><time>2026-04-02T11:17:12Z</time></trkpt><trkpt lat="43.806959402457956" lon="2.864989542313635"><ele>678.3333333333334</ele><time>2026-04-02T11:17:13Z</time></trkpt><trkpt lat="43.807139239869066" lon="2.8650405998741064"><ele>680.6666666666666</ele><time>2026-04-02T11:17:14Z</time></trkpt><trkpt lat="43.8073027983983" lon="2.865105004798142"><ele>683.0</ele><time>2026-04-02T11:17:15Z</time></trkpt><trkpt lat="43.807450091847684" lon="2.8652181575117432"><ele>682.6666666666666</ele><time>2026-04-02T11:17:16Z</time></trkpt><trkpt lat="43.80760947922746" lon="2.865350390413039"><ele>682.3333333333334</ele><time>2026-04-02T11:17:17Z</time></trkpt><trkpt lat="43.80777023574119" lon="2.865485955586947"><ele>682.0</ele><time>2026-04-02T11:17:18Z</time></trkpt><trkpt lat="43.80792379574598" lon="2.865632480702661"><ele>682.0</ele><time>2026-04-02T11:17:19Z</time></trkpt><trkpt lat="43.80805407553126" lon="2.8657950390054046"><ele>682.0</ele><time>2026-04-02T11:17:20Z</time></trkpt><trkpt lat="43.80816896054608" lon="2.8659887390457834"><ele>682.0</ele><time>2026-04-02T11:17:21Z</time></trkpt><trkpt lat="43.80827599767944" lon="2.866196224382197"><ele>683.0</ele><time>2026-04-02T11:17:22Z</time></trkpt><trkpt lat="43.8083902020844" lon="2.8664122544252852"><ele>684.0</ele><time>2026-04-02T11:17:23Z</time></trkpt><trkpt lat="43.80850734064939" lon="2.8666322603371195"><ele>685.0</ele><time>2026-04-02T11:17:24Z</time></trkpt><trkpt lat="43.80862192509202" lon="2.8668577942548805"><ele>679.0</ele><time>2026-04-02T11:17:25Z</time></trkpt><trkpt lat="43.808728446142894" lon="2.8670832631892584"><ele>673.0</ele><time>2026-04-02T11:17:26Z</time></trkpt><trkpt lat="43.808834190731716" lon="2.8673142066313355"><ele>667.0</ele><time>2026-04-02T11:17:27Z</time></trkpt><trkpt lat="43.80893550234151" lon="2.867546057449134"><ele>660.6666666666667</ele><time>2026-04-02T11:17:28Z</time></trkpt><trkpt lat="43.80903531245251" lon="2.86779330774362"><ele>654.3333333333334</ele><time>2026-04-02T11:17:29Z</time></trkpt><trkpt lat="43.80912346529941" lon="2.868022751677391"><ele>648.0</ele><time>2026-04-02T11:17:30Z</time></trkpt><trkpt lat="43.80922675961642" lon="2.8682397286271417"><ele>648.0</ele><time>2026-04-02T11:17:31Z</time></trkpt><trkpt lat="43.809318107871604" lon="2.868441608633625"><ele>648.0</ele><time>2026-04-02T11:17:32Z</time></trkpt><trkpt lat="43.80944759486444" lon="2.868629977548597"><ele>648.0</ele><time>2026-04-02T11:17:33Z</time></trkpt><trkpt lat="43.80961197365073" lon="2.8688065641066167"><ele>647.3333333333334</ele><time>2026-04-02T11:17:34Z</time></trkpt><trkpt lat="43.80974427626079" lon="2.8690018309859404"><ele>646.6666666666667</ele><time>2026-04-02T11:17:35Z</time></trkpt><trkpt lat="43.809878586015" lon="2.8691579491500785"><ele>646.0</ele><time>2026-04-02T11:17:36Z</time></trkpt><trkpt lat="43.80999370513825" lon="2.869350993149414"><ele>642.3333333333334</ele><time>2026-04-02T11:17:37Z</time></trkpt><trkpt lat="43.81010966712459" lon="2.8695374973163132"><ele>638.6666666666666</ele><time>2026-04-02T11:17:38Z</time></trkpt><trkpt lat="43.81023781128533" lon="2.8697199766485704"><ele>635.0</ele><time>2026-04-02T11:17:39Z</time></trkpt><trkpt lat="43.81038398183678" lon="2.869886891578121"><ele>635.0</ele><time>2026-04-02T11:17:40Z</time></trkpt><trkpt lat="43.81056110772222" lon="2.870006284189706"><ele>635.0</ele><time>2026-04-02T11:17:41Z</time></trkpt><trkpt lat="43.81075053291306" lon="2.87012131069102"><ele>635.0</ele><time>2026-04-02T11:17:42Z</time></trkpt><trkpt lat="43.81092067449577" lon="2.8702847625351597"><ele>630.0</ele><time>2026-04-02T11:17:43Z</time></trkpt><trkpt lat="43.81107031197823" lon="2.870487681998646"><ele>625.0</ele><time>2026-04-02T11:17:44Z</time></trkpt><trkpt lat="43.81120644622801" lon="2.8707005939269004"><ele>620.0</ele><time>2026-04-02T11:17:45Z</time></trkpt><trkpt lat="43.81134504148761" lon="2.8709079858120674"><ele>616.0</ele><time>2026-04-02T11:17:46Z</time></trkpt><trkpt lat="43.811478260305655" lon="2.8711098814414564"><ele>612.0</ele><time>2026-04-02T11:17:47Z</time></trkpt><trkpt lat="43.811608870257096" lon="2.8712900047595387"><ele>608.0</ele><time>2026-04-02T11:17:48Z</time></trkpt><trkpt lat="43.81173856084808" lon="2.8714241921314265"><ele>606.5</ele><time>2026-04-02T11:17:49Z</time></trkpt><trkpt lat="43.81188241040768" lon="2.8715009563097205"><ele>605.0</ele><time>2026-04-02T11:17:50Z</time></trkpt><trkpt lat="43.811972547328814" lon="2.8716113938476933"><ele>603.5</ele><time>2026-04-02T11:17:51Z</time></trkpt><trkpt lat="43.81201877859693" lon="2.8716979490303443"><ele>602.0</ele><time>2026-04-02T11:17:52Z</time></trkpt><trkpt lat="43.81194491102345" lon="2.871819510038157"><ele>601.25</ele><time>2026-04-02T11:17:54Z</time></trkpt><trkpt lat="43.81186940131795" lon="2.8718305149294463"><ele>600.5</ele><time>2026-04-02T11:17:55Z</time></trkpt><trkpt lat="43.811761828087675" lon="2.8717538316080415"><ele>599.75</ele><time>2026-04-02T11:17:56Z</time></trkpt><trkpt lat="43.8116249135372" lon="2.8716039024831748"><ele>599.0</ele><time>2026-04-02T11:17:57Z</time></trkpt><trkpt lat="43.811493207106246" lon="2.871417097455074"><ele>602.0</ele><time>2026-04-02T11:17:58Z</time></trkpt><trkpt lat="43.81133474360496" lon="2.871248294836155"><ele>605.0</ele><time>2026-04-02T11:17:59Z</time></trkpt><trkpt lat="43.81118175674082" lon="2.871099760935613"><ele>608.0</ele><time>2026-04-02T11:18:00Z</time></trkpt><trkpt lat="43.81104017496894" lon="2.8709595779318766"><ele>611.0</ele><time>2026-04-02T11:18:01Z</time></trkpt><trkpt lat="43.81088277089989" lon="2.870860796028585"><ele>614.0</ele><time>2026-04-02T11:18:02Z</time></trkpt><trkpt lat="43.810682780774115" lon="2.870833102185142"><ele>617.0</ele><time>2026-04-02T11:18:03Z</time></trkpt><trkpt lat="43.8104666264434" lon="2.8708326494435887"><ele>617.0</ele><time>2026-04-02T11:18:04Z</time></trkpt><trkpt lat="43.81027986817589" lon="2.870720774247363"><ele>617.0</ele><time>2026-04-02T11:18:05Z</time></trkpt><trkpt lat="43.81009386100125" lon="2.8706261799110697"><ele>617.0</ele><time>2026-04-02T11:18:06Z</time></trkpt><trkpt lat="43.80989637852707" lon="2.870546066280704"><ele>613.3333333333333</ele><time>2026-04-02T11:18:07Z</time></trkpt><trkpt lat="43.80967571020384" lon="2.870537873050363"><ele>609.6666666666666</ele><time>2026-04-02T11:18:08Z</time></trkpt><trkpt lat="43.80948074612337" lon="2.8705577391710966"><ele>606.0</ele><time>2026-04-02T11:18:09Z</time></trkpt><trkpt lat="43.80931398112914" lon="2.8705573873780756"><ele>600.0</ele><time>2026-04-02T11:18:10Z</time></trkpt><trkpt lat="43.80916287508547" lon="2.8705099516176458"><ele>594.0</ele><time>2026-04-02T11:18:11Z</time></trkpt><trkpt lat="43.80902366897268" lon="2.8703848257977236"><ele>588.0</ele><time>2026-04-02T11:18:12Z</time></trkpt><trkpt lat="43.80884783236395" lon="2.8702764277002903"><ele>588.0</ele><time>2026-04-02T11:18:13Z</time></trkpt><trkpt lat="43.80866760799175" lon="2.870156886746539"><ele>588.0</ele><time>2026-04-02T11:18:14Z</time></trkpt><trkpt lat="43.808460532005924" lon="2.870082352538926"><ele>588.0</ele><time>2026-04-02T11:18:15Z</time></trkpt><trkpt lat="43.80827043742095" lon="2.8700244284765346"><ele>589.3333333333334</ele><time>2026-04-02T11:18:16Z</time></trkpt><trkpt lat="43.80808415436041" lon="2.869959936674233"><ele>590.6666666666667</ele><time>2026-04-02T11:18:17Z</time></trkpt><trkpt lat="43.80790823824055" lon="2.8699052551008237"><ele>592.0</ele><time>2026-04-02T11:18:18Z</time></trkpt><trkpt lat="43.80772868605452" lon="2.8698798475602563"><ele>587.6666666666667</ele><time>2026-04-02T11:18:19Z</time></trkpt><trkpt lat="43.80754425230329" lon="2.8698654194233866"><ele>583.3333333333334</ele><time>2026-04-02T11:18:20Z</time></trkpt><trkpt lat="43.8073691868875" lon="2.8698170390133626"><ele>579.0</ele><time>2026-04-02T11:18:21Z</time></trkpt><trkpt lat="43.80720739423791" lon="2.86976176257953"><ele>579.0</ele><time>2026-04-02T11:18:22Z</time></trkpt><trkpt lat="43.807057708966276" lon="2.8697182198978153"><ele>579.0</ele><time>2026-04-02T11:18:23Z</time></trkpt><trkpt lat="43.8069268301948" lon="2.8696810086024396"><ele>579.0</ele><time>2026-04-02T11:18:24Z</time></trkpt><trkpt lat="43.80681986791467" lon="2.869654649018489"><ele>579.0</ele><time>2026-04-02T11:18:25Z</time></trkpt><trkpt lat="43.80672855231593" lon="2.869703354096201"><ele>576.75</ele><time>2026-04-02T11:18:26Z</time></trkpt><trkpt lat="43.8066916841503" lon="2.869836654762267"><ele>574.5</ele><time>2026-04-02T11:18:27Z</time></trkpt><trkpt lat="43.80671554382844" lon="2.8699773051834834"><ele>572.25</ele><time>2026-04-02T11:18:28Z</time></trkpt><trkpt lat="43.80678668498307" lon="2.8700901584728933"><ele>570.0</ele><time>2026-04-02T11:18:29Z</time></trkpt><trkpt lat="43.80692547174081" lon="2.87011932449216"><ele>569.0</ele><time>2026-04-02T11:18:30Z</time></trkpt><trkpt lat="43.80709362173285" lon="2.8701536191671697"><ele>568.0</ele><time>2026-04-02T11:18:31Z</time></trkpt><trkpt lat="43.80726120913835" lon="2.8702897406715935"><ele>567.0</ele><time>2026-04-02T11:18:32Z</time></trkpt><trkpt lat="43.80743152624886" lon="2.87042004306685"><ele>567.0</ele><time>2026-04-02T11:18:33Z</time></trkpt><trkpt lat="43.807563350399995" lon="2.870609783060962"><ele>567.0</ele><time>2026-04-02T11:18:34Z</time></trkpt><trkpt lat="43.80770777928989" lon="2.870772171822682"><ele>567.0</ele><time>2026-04-02T11:18:35Z</time></trkpt><trkpt lat="43.807850798157055" lon="2.870989725532584"><ele>563.0</ele><time>2026-04-02T11:18:36Z</time></trkpt><trkpt lat="43.80804454500563" lon="2.871191765861204"><ele>559.0</ele><time>2026-04-02T11:18:37Z</time></trkpt><trkpt lat="43.80825871834703" lon="2.8713988717852237"><ele>559.0</ele><time>2026-04-02T11:18:38Z</time></trkpt><trkpt lat="43.808438181324334" lon="2.8715855845967178"><ele>559.0</ele><time>2026-04-02T11:18:39Z</time></trkpt><trkpt lat="43.80862459978387" lon="2.8717738401244035"><ele>556.6666666666667</ele><time>2026-04-02T11:18:40Z</time></trkpt><trkpt lat="43.80878894838581" lon="2.871970571462533"><ele>554.3333333333334</ele><time>2026-04-02T11:18:41Z</time></trkpt><trkpt lat="43.808966397351035" lon="2.872128398695806"><ele>552.0</ele><time>2026-04-02T11:18:42Z</time></trkpt><trkpt lat="43.809138114442945" lon="2.872303431251852"><ele>552.0</ele><time>2026-04-02T11:18:43Z</time></trkpt><trkpt lat="43.80931205949965" lon="2.872445042604768"><ele>552.0</ele><time>2026-04-02T11:18:44Z</time></trkpt><trkpt lat="43.809484511856006" lon="2.8725804211106216"><ele>552.0</ele><time>2026-04-02T11:18:45Z</time></trkpt><trkpt lat="43.80964023412757" lon="2.8727183686559257"><ele>548.0</ele><time>2026-04-02T11:18:46Z</time></trkpt><trkpt lat="43.80980678892538" lon="2.872873705616496"><ele>544.0</ele><time>2026-04-02T11:18:47Z</time></trkpt><trkpt lat="43.809934276154365" lon="2.873090809137645"><ele>540.0</ele><time>2026-04-02T11:18:48Z</time></trkpt><trkpt lat="43.810069918429846" lon="2.873327656193314"><ele>538.5</ele><time>2026-04-02T11:18:49Z</time></trkpt><trkpt lat="43.810223944709406" lon="2.8735645290233545"><ele>537.0</ele><time>2026-04-02T11:18:50Z</time></trkpt><trkpt lat="43.81040569359078" lon="2.873780847757036"><ele>537.0</ele><time>2026-04-02T11:18:51Z</time></trkpt><trkpt lat="43.810589798915494" lon="2.874024830643691"><ele>537.0</ele><time>2026-04-02T11:18:52Z</time></trkpt><trkpt lat="43.81074613763541" lon="2.874290808000069"><ele>539.5</ele><time>2026-04-02T11:18:53Z</time></trkpt><trkpt lat="43.81089635509203" lon="2.8745481314956134"><ele>542.0</ele><time>2026-04-02T11:18:54Z</time></trkpt><trkpt lat="43.81106009237798" lon="2.87475549934515"><ele>542.0</ele><time>2026-04-02T11:18:55Z</time></trkpt><trkpt lat="43.81120620357669" lon="2.875000104278835"><ele>542.0</ele><time>2026-04-02T11:18:56Z</time></trkpt><trkpt lat="43.81135002732364" lon="2.8752337813014344"><ele>535.6666666666666</ele><time>2026-04-02T11:18:57Z</time></trkpt><trkpt lat="43.81147791097408" lon="2.8754834944901155"><ele>529.3333333333334</ele><time>2026-04-02T11:18:58Z</time></trkpt><trkpt lat="43.811590650800426" lon="2.8757401484889606"><ele>523.0</ele><time>2026-04-02T11:18:59Z</time></trkpt><trkpt lat="43.81169182856557" lon="2.8759977473656764"><ele>523.6666666666667</ele><time>2026-04-02T11:19:00Z</time></trkpt><trkpt lat="43.811789903091146" lon="2.8762536583526037"><ele>524.3333333333334</ele><time>2026-04-02T11:19:01Z</time></trkpt><trkpt lat="43.811885731541366" lon="2.876491124152469"><ele>525.0</ele><time>2026-04-02T11:19:02Z</time></trkpt><trkpt lat="43.81197964314005" lon="2.876705947089052"><ele>520.0</ele><time>2026-04-02T11:19:03Z</time></trkpt><trkpt lat="43.81208994131136" lon="2.8768457926286404"><ele>515.0</ele><time>2026-04-02T11:19:04Z</time></trkpt><trkpt lat="43.81219259112492" lon="2.876956866491795"><ele>510.0</ele><time>2026-04-02T11:19:05Z</time></trkpt><trkpt lat="43.81230739956653" lon="2.877018000755135"><ele>505.0</ele><time>2026-04-02T11:19:06Z</time></trkpt><trkpt lat="43.81236391905057" lon="2.8771006980798854"><ele>505.00000000000006</ele><time>2026-04-02T11:19:07Z</time></trkpt><trkpt lat="43.812330343492015" lon="2.8772088741349076"><ele>505.0</ele><time>2026-04-02T11:19:09Z</time></trkpt><trkpt lat="43.81224741666479" lon="2.8771994682119493"><ele>505.0</ele><time>2026-04-02T11:19:10Z</time></trkpt><trkpt lat="43.81219334794048" lon="2.877140081242847"><ele>505.0</ele><time>2026-04-02T11:19:11Z</time></trkpt><trkpt lat="43.8121028466082" lon="2.8770272245435438"><ele>505.00000000000006</ele><time>2026-04-02T11:19:13Z</time></trkpt><trkpt lat="43.8120506969617" lon="2.8769756292022857"><ele>505.0</ele><time>2026-04-02T11:19:14Z</time></trkpt><trkpt lat="43.81199722867942" lon="2.8769280530392263"><ele>505.00000000000006</ele><time>2026-04-02T11:19:15Z</time></trkpt><trkpt lat="43.81194056299908" lon="2.8768740418976604"><ele>505.0</ele><time>2026-04-02T11:19:16Z</time></trkpt><trkpt lat="43.81188631376264" lon="2.8768136080065974"><ele>505.0</ele><time>2026-04-02T11:19:17Z</time></trkpt><trkpt lat="43.81183170950767" lon="2.876743972524622"><ele>505.0</ele><time>2026-04-02T11:19:18Z</time></trkpt><trkpt lat="43.81177207716784" lon="2.8766779952446297"><ele>505.00000000000006</ele><time>2026-04-02T11:19:19Z</time></trkpt><trkpt lat="43.81171006048596" lon="2.8766059245259124"><ele>505.0</ele><time>2026-04-02T11:19:20Z</time></trkpt><trkpt lat="43.81164832389804" lon="2.8765290005206943"><ele>504.4</ele><time>2026-04-02T11:19:21Z</time></trkpt><trkpt lat="43.81158803356011" lon="2.8764430415517848"><ele>503.8</ele><time>2026-04-02T11:19:22Z</time></trkpt><trkpt lat="43.811521442347996" lon="2.8763529851869976"><ele>503.20000000000005</ele><time>2026-04-02T11:19:23Z</time></trkpt><trkpt lat="43.811453083927034" lon="2.876277394568399"><ele>502.6</ele><time>2026-04-02T11:19:24Z</time></trkpt><trkpt lat="43.81137732898971" lon="2.876191773245112"><ele>502.0</ele><time>2026-04-02T11:19:25Z</time></trkpt><trkpt lat="43.81130335181033" lon="2.8761076818550486"><ele>502.0</ele><time>2026-04-02T11:19:26Z</time></trkpt><trkpt lat="43.811226821368955" lon="2.8760190322894776"><ele>502.00000000000006</ele><time>2026-04-02T11:19:27Z</time></trkpt><trkpt lat="43.811153820988345" lon="2.8759254980116453"><ele>502.00000000000006</ele><time>2026-04-02T11:19:28Z</time></trkpt><trkpt lat="43.811076304353726" lon="2.8758309885505473"><ele>502.0</ele><time>2026-04-02T11:19:29Z</time></trkpt><trkpt lat="43.810994189013684" lon="2.8757357820752696"><ele>502.0</ele><time>2026-04-02T11:19:30Z</time></trkpt><trkpt lat="43.81090843092581" lon="2.875645413269792"><ele>499.5</ele><time>2026-04-02T11:19:31Z</time></trkpt><trkpt lat="43.81081798060742" lon="2.8755559918227127"><ele>497.0</ele><time>2026-04-02T11:19:32Z</time></trkpt><trkpt lat="43.81072619749886" lon="2.8754645420316227"><ele>494.5</ele><time>2026-04-02T11:19:33Z</time></trkpt><trkpt lat="43.810634640363055" lon="2.875374204616544"><ele>492.0</ele><time>2026-04-02T11:19:34Z</time></trkpt><trkpt lat="43.81054298499159" lon="2.8752799216904146"><ele>492.0</ele><time>2026-04-02T11:19:35Z</time></trkpt><trkpt lat="43.810446676906324" lon="2.875192357666147"><ele>492.0</ele><time>2026-04-02T11:19:36Z</time></trkpt><trkpt lat="43.81034344314694" lon="2.875113226841964"><ele>492.0</ele><time>2026-04-02T11:19:37Z</time></trkpt><trkpt lat="43.8102353292128" lon="2.875043583674633"><ele>492.0</ele><time>2026-04-02T11:19:38Z</time></trkpt><trkpt lat="43.810139813293716" lon="2.874964205802726"><ele>491.75</ele><time>2026-04-02T11:19:39Z</time></trkpt><trkpt lat="43.8100344390688" lon="2.8748885457747337"><ele>491.5</ele><time>2026-04-02T11:19:40Z</time></trkpt><trkpt lat="43.80992909072699" lon="2.8748101553934378"><ele>491.25</ele><time>2026-04-02T11:19:41Z</time></trkpt><trkpt lat="43.80981752399475" lon="2.8747423883797607"><ele>491.0</ele><time>2026-04-02T11:19:42Z</time></trkpt><trkpt lat="43.80970039935978" lon="2.874685011437271"><ele>491.0</ele><time>2026-04-02T11:19:43Z</time></trkpt><trkpt lat="43.80958352184078" lon="2.874623224829843"><ele>491.0</ele><time>2026-04-02T11:19:44Z</time></trkpt><trkpt lat="43.80946509571015" lon="2.874559382760546"><ele>491.0</ele><time>2026-04-02T11:19:45Z</time></trkpt><trkpt lat="43.80935580972842" lon="2.874485341978661"><ele>491.0</ele><time>2026-04-02T11:19:46Z</time></trkpt><trkpt lat="43.80926854692056" lon="2.8744144962461746"><ele>487.8</ele><time>2026-04-02T11:19:47Z</time></trkpt><trkpt lat="43.80918714760809" lon="2.874363380908901"><ele>484.6</ele><time>2026-04-02T11:19:48Z</time></trkpt><trkpt lat="43.80910751122712" lon="2.8743612665333873"><ele>481.4</ele><time>2026-04-02T11:19:49Z</time></trkpt><trkpt lat="43.809063960687865" lon="2.8744602027290993"><ele>478.2</ele><time>2026-04-02T11:19:50Z</time></trkpt><trkpt lat="43.80915850546685" lon="2.8746811270447123"><ele>475.0</ele><time>2026-04-02T11:19:52Z</time></trkpt><trkpt lat="43.80924767163505" lon="2.8747155414026104"><ele>477.6666666666667</ele><time>2026-04-02T11:19:53Z</time></trkpt><trkpt lat="43.809327420669284" lon="2.8747472920713135"><ele>480.33333333333337</ele><time>2026-04-02T11:19:54Z</time></trkpt><trkpt lat="43.809403436863064" lon="2.8747829223692203"><ele>483.0</ele><time>2026-04-02T11:19:55Z</time></trkpt><trkpt lat="43.80947520381972" lon="2.8748397704392166"><ele>485.66666666666663</ele><time>2026-04-02T11:19:56Z</time></trkpt><trkpt lat="43.80954621577263" lon="2.8749024935429777"><ele>488.3333333333333</ele><time>2026-04-02T11:19:57Z</time></trkpt><trkpt lat="43.80962061370192" lon="2.874966326593066"><ele>491.0</ele><time>2026-04-02T11:19:58Z</time></trkpt><trkpt lat="43.80969418117574" lon="2.875034194455989"><ele>485.4</ele><time>2026-04-02T11:19:59Z</time></trkpt><trkpt lat="43.809765035974976" lon="2.8751116633450513"><ele>479.8</ele><time>2026-04-02T11:20:00Z</time></trkpt><trkpt lat="43.809842361014965" lon="2.8751872678395927"><ele>474.19999999999993</ele><time>2026-04-02T11:20:01Z</time></trkpt><trkpt lat="43.809917360675264" lon="2.8752661461354383"><ele>468.59999999999997</ele><time>2026-04-02T11:20:02Z</time></trkpt><trkpt lat="43.80998958104716" lon="2.8753586048122037"><ele>463.0</ele><time>2026-04-02T11:20:03Z</time></trkpt><trkpt lat="43.810066891942924" lon="2.875447835282264"><ele>463.0</ele><time>2026-04-02T11:20:04Z</time></trkpt><trkpt lat="43.81014594886101" lon="2.875540275789214"><ele>462.99999999999994</ele><time>2026-04-02T11:20:05Z</time></trkpt><trkpt lat="43.81021945389945" lon="2.8756393969405356"><ele>462.99999999999994</ele><time>2026-04-02T11:20:06Z</time></trkpt><trkpt lat="43.810299364617265" lon="2.875741419755559"><ele>463.0</ele><time>2026-04-02T11:20:07Z</time></trkpt><trkpt lat="43.81036815648756" lon="2.8758558050497167"><ele>463.0</ele><time>2026-04-02T11:20:08Z</time></trkpt><trkpt lat="43.81043556754822" lon="2.8759736701674954"><ele>464.0</ele><time>2026-04-02T11:20:09Z</time></trkpt><trkpt lat="43.81050240449952" lon="2.876097994823552"><ele>465.0</ele><time>2026-04-02T11:20:10Z</time></trkpt><trkpt lat="43.81057106475506" lon="2.876223310383385"><ele>466.0</ele><time>2026-04-02T11:20:11Z</time></trkpt><trkpt lat="43.81063946621062" lon="2.8763504049269195"><ele>467.0</ele><time>2026-04-02T11:20:12Z</time></trkpt><trkpt lat="43.81070694554584" lon="2.8764805197079037"><ele>467.0</ele><time>2026-04-02T11:20:13Z</time></trkpt><trkpt lat="43.81077290952237" lon="2.876614025774234"><ele>467.0</ele><time>2026-04-02T11:20:14Z</time></trkpt><trkpt lat="43.810835919163246" lon="2.876754180110574"><ele>467.0</ele><time>2026-04-02T11:20:15Z</time></trkpt><trkpt lat="43.81088308772367" lon="2.8769113433981848"><ele>467.0</ele><time>2026-04-02T11:20:16Z</time></trkpt><trkpt lat="43.810939232181774" lon="2.8770663969618155"><ele>470.0</ele><time>2026-04-02T11:20:17Z</time></trkpt><trkpt lat="43.81099321423707" lon="2.877221130322376"><ele>473.0</ele><time>2026-04-02T11:20:18Z</time></trkpt><trkpt lat="43.81106518314804" lon="2.877377469157519"><ele>476.0</ele><time>2026-04-02T11:20:19Z</time></trkpt><trkpt lat="43.81111597310796" lon="2.8775404166382708"><ele>479.0</ele><time>2026-04-02T11:20:20Z</time></trkpt><trkpt lat="43.81120044084005" lon="2.8776793056858114"><ele>471.75</ele><time>2026-04-02T11:20:21Z</time></trkpt><trkpt lat="43.81128390238684" lon="2.877820908224198"><ele>464.5</ele><time>2026-04-02T11:20:22Z</time></trkpt><trkpt lat="43.81138015456113" lon="2.8779632823880164"><ele>457.25</ele><time>2026-04-02T11:20:23Z</time></trkpt><trkpt lat="43.81147818632689" lon="2.8780938307137998"><ele>450.0</ele><time>2026-04-02T11:20:24Z</time></trkpt><trkpt lat="43.81158875746133" lon="2.8782043873579735"><ele>450.0</ele><time>2026-04-02T11:20:25Z</time></trkpt><trkpt lat="43.811689907149756" lon="2.8783320865082773"><ele>450.0</ele><time>2026-04-02T11:20:26Z</time></trkpt><trkpt lat="43.811791356573345" lon="2.8784644785134073"><ele>450.0</ele><time>2026-04-02T11:20:27Z</time></trkpt><trkpt lat="43.81189292473157" lon="2.878586755017923"><ele>450.0</ele><time>2026-04-02T11:20:28Z</time></trkpt><trkpt lat="43.81199050477467" lon="2.878721391289869"><ele>447.0</ele><time>2026-04-02T11:20:29Z</time></trkpt><trkpt lat="43.81207536999397" lon="2.8788725667248998"><ele>444.0</ele><time>2026-04-02T11:20:30Z</time></trkpt><trkpt lat="43.812167609270105" lon="2.879017236833222"><ele>441.0</ele><time>2026-04-02T11:20:31Z</time></trkpt><trkpt lat="43.81227014493257" lon="2.8791340110383934"><ele>438.0</ele><time>2026-04-02T11:20:32Z</time></trkpt><trkpt lat="43.81237006145081" lon="2.8792379596585773"><ele>438.0</ele><time>2026-04-02T11:20:33Z</time></trkpt><trkpt lat="43.812501960603534" lon="2.879273585017573"><ele>438.0</ele><time>2026-04-02T11:20:34Z</time></trkpt><trkpt lat="43.81263526179017" lon="2.8792353567097733"><ele>438.0</ele><time>2026-04-02T11:20:35Z</time></trkpt><trkpt lat="43.81276223355814" lon="2.8791726245031843"><ele>438.0</ele><time>2026-04-02T11:20:36Z</time></trkpt><trkpt lat="43.812883433133464" lon="2.8791234816885893"><ele>437.5</ele><time>2026-04-02T11:20:37Z</time></trkpt><trkpt lat="43.81300723059066" lon="2.879088494271104"><ele>437.0</ele><time>2026-04-02T11:20:38Z</time></trkpt><trkpt lat="43.81313559295256" lon="2.879058612487506"><ele>436.5</ele><time>2026-04-02T11:20:39Z</time></trkpt><trkpt lat="43.8132652204278" lon="2.8790378683508004"><ele>436.0</ele><time>2026-04-02T11:20:40Z</time></trkpt><trkpt lat="43.81339702915616" lon="2.879023670162585"><ele>431.5</ele><time>2026-04-02T11:20:41Z</time></trkpt><trkpt lat="43.81352837840342" lon="2.879008937553852"><ele>427.0</ele><time>2026-04-02T11:20:42Z</time></trkpt><trkpt lat="43.813657959611426" lon="2.8789788162469554"><ele>422.5</ele><time>2026-04-02T11:20:43Z</time></trkpt><trkpt lat="43.81378697556739" lon="2.878919074336763"><ele>418.0</ele><time>2026-04-02T11:20:44Z</time></trkpt><trkpt lat="43.81391120085237" lon="2.87883662491249"><ele>418.0</ele><time>2026-04-02T11:20:45Z</time></trkpt><trkpt lat="43.81403764480731" lon="2.878761084201816"><ele>418.0</ele><time>2026-04-02T11:20:46Z</time></trkpt><trkpt lat="43.81416965156184" lon="2.878772122340351"><ele>418.0</ele><time>2026-04-02T11:20:47Z</time></trkpt><trkpt lat="43.81431415559885" lon="2.878784241713274"><ele>418.0</ele><time>2026-04-02T11:20:48Z</time></trkpt><trkpt lat="43.81444892159593" lon="2.8787847518761827"><ele>413.5</ele><time>2026-04-02T11:20:49Z</time></trkpt><trkpt lat="43.81458092215114" lon="2.8787401156420827"><ele>409.0</ele><time>2026-04-02T11:20:50Z</time></trkpt><trkpt lat="43.814712325703184" lon="2.878654903268636"><ele>404.5</ele><time>2026-04-02T11:20:51Z</time></trkpt><trkpt lat="43.81483428644185" lon="2.878568293826969"><ele>400.0</ele><time>2026-04-02T11:20:52Z</time></trkpt><trkpt lat="43.81496150844358" lon="2.878505704290547"><ele>400.0</ele><time>2026-04-02T11:20:53Z</time></trkpt><trkpt lat="43.81509694862058" lon="2.8784620670334315"><ele>400.0</ele><time>2026-04-02T11:20:54Z</time></trkpt><trkpt lat="43.815239097947675" lon="2.8784355473081544"><ele>400.0</ele><time>2026-04-02T11:20:55Z</time></trkpt><trkpt lat="43.815378704641695" lon="2.8784507773447277"><ele>400.0</ele><time>2026-04-02T11:20:56Z</time></trkpt><trkpt lat="43.81551894589255" lon="2.8784472258311977"><ele>398.33333333333337</ele><time>2026-04-02T11:20:57Z</time></trkpt><trkpt lat="43.815661848182614" lon="2.878425920698612"><ele>396.66666666666663</ele><time>2026-04-02T11:20:58Z</time></trkpt><trkpt lat="43.815949749941716" lon="2.878447109674294"><ele>395.0</ele><time>2026-04-02T11:21:00Z</time></trkpt><trkpt lat="43.816093667738436" lon="2.8784724292014685"><ele>394.25</ele><time>2026-04-02T11:21:01Z</time></trkpt><trkpt lat="43.816238544235794" lon="2.878506233489647"><ele>393.5</ele><time>2026-04-02T11:21:02Z</time></trkpt><trkpt lat="43.81638512533805" lon="2.8785475155681666"><ele>392.75</ele><time>2026-04-02T11:21:03Z</time></trkpt><trkpt lat="43.816530021772074" lon="2.8785905763158643"><ele>392.0</ele><time>2026-04-02T11:21:04Z</time></trkpt><trkpt lat="43.816674576514444" lon="2.8786192805192465"><ele>391.0</ele><time>2026-04-02T11:21:05Z</time></trkpt><trkpt lat="43.81682417193116" lon="2.8786251365572304"><ele>390.0</ele><time>2026-04-02T11:21:06Z</time></trkpt><trkpt lat="43.81697220738893" lon="2.8786109174661876"><ele>389.0</ele><time>2026-04-02T11:21:07Z</time></trkpt><trkpt lat="43.817118529523746" lon="2.878593090469617"><ele>388.0</ele><time>2026-04-02T11:21:08Z</time></trkpt><trkpt lat="43.817256030945366" lon="2.8785703822354156"><ele>388.0</ele><time>2026-04-02T11:21:09Z</time></trkpt><trkpt lat="43.81739978690323" lon="2.878577102716338"><ele>388.0</ele><time>2026-04-02T11:21:10Z</time></trkpt><trkpt lat="43.81755256673964" lon="2.8785504354988496"><ele>388.0</ele><time>2026-04-02T11:21:11Z</time></trkpt><trkpt lat="43.81769943807008" lon="2.878525348123559"><ele>388.0</ele><time>2026-04-02T11:21:12Z</time></trkpt><trkpt lat="43.81784358520558" lon="2.878497650899514"><ele>387.25</ele><time>2026-04-02T11:21:13Z</time></trkpt><trkpt lat="43.81799305521345" lon="2.8784703581883293"><ele>386.5</ele><time>2026-04-02T11:21:14Z</time></trkpt><trkpt lat="43.81814054120083" lon="2.8784985425156706"><ele>385.75</ele><time>2026-04-02T11:21:15Z</time></trkpt><trkpt lat="43.81828519247196" lon="2.8785326195313994"><ele>385.0</ele><time>2026-04-02T11:21:16Z</time></trkpt><trkpt lat="43.81842953302556" lon="2.8785746691073584"><ele>386.5</ele><time>2026-04-02T11:21:17Z</time></trkpt><trkpt lat="43.818571101505945" lon="2.87858426696597"><ele>388.0</ele><time>2026-04-02T11:21:18Z</time></trkpt><trkpt lat="43.81869121797504" lon="2.8786124424164394"><ele>389.5</ele><time>2026-04-02T11:21:19Z</time></trkpt><trkpt lat="43.818790724468684" lon="2.8786468011900705"><ele>391.0</ele><time>2026-04-02T11:21:20Z</time></trkpt><trkpt lat="43.818875165202236" lon="2.878658902066707"><ele>391.00000000000006</ele><time>2026-04-02T11:21:21Z</time></trkpt><trkpt lat="43.818939817017885" lon="2.8786547040328556"><ele>391.0</ele><time>2026-04-02T11:21:22Z</time></trkpt><trkpt lat="43.8189838232618" lon="2.87872719489855"><ele>391.0</ele><time>2026-04-02T11:21:24Z</time></trkpt><trkpt lat="43.819056218391005" lon="2.8787878110614016"><ele>391.0</ele><time>2026-04-02T11:21:29Z</time></trkpt><trkpt lat="43.81914320907934" lon="2.8787922184521606"><ele>391.00000000000006</ele><time>2026-04-02T11:21:30Z</time></trkpt><trkpt lat="43.81924426759676" lon="2.8787972486260505"><ele>391.0</ele><time>2026-04-02T11:21:31Z</time></trkpt><trkpt lat="43.8193464133097" lon="2.878838716466387"><ele>390.25</ele><time>2026-04-02T11:21:32Z</time></trkpt><trkpt lat="43.81947426451735" lon="2.8788457414771305"><ele>389.5</ele><time>2026-04-02T11:21:33Z</time></trkpt><trkpt lat="43.819600257228714" lon="2.878885263293466"><ele>388.75</ele><time>2026-04-02T11:21:34Z</time></trkpt><trkpt lat="43.819720724842796" lon="2.8789559436881262"><ele>388.0</ele><time>2026-04-02T11:21:35Z</time></trkpt><trkpt lat="43.81983863099589" lon="2.8790011517708143"><ele>388.0</ele><time>2026-04-02T11:21:36Z</time></trkpt><trkpt lat="43.81994367085889" lon="2.8790337612298487"><ele>388.0</ele><time>2026-04-02T11:21:37Z</time></trkpt><trkpt lat="43.8200478850565" lon="2.8790368813027434"><ele>388.0</ele><time>2026-04-02T11:21:38Z</time></trkpt><trkpt lat="43.82015043961308" lon="2.879058783097444"><ele>388.0</ele><time>2026-04-02T11:21:39Z</time></trkpt><trkpt lat="43.820248327363515" lon="2.8790707188144804"><ele>388.0</ele><time>2026-04-02T11:21:40Z</time></trkpt><trkpt lat="43.8203347151662" lon="2.879109051716545"><ele>387.6666666666667</ele><time>2026-04-02T11:21:41Z</time></trkpt><trkpt lat="43.820421669989116" lon="2.8790979340301623"><ele>387.33333333333337</ele><time>2026-04-02T11:21:42Z</time></trkpt><trkpt lat="43.82050083226427" lon="2.879099826116077"><ele>387.0</ele><time>2026-04-02T11:21:43Z</time></trkpt><trkpt lat="43.82058704696619" lon="2.8790752942558457"><ele>386.66666666666663</ele><time>2026-04-02T11:21:44Z</time></trkpt><trkpt lat="43.82067181570211" lon="2.8790421785113525"><ele>386.3333333333333</ele><time>2026-04-02T11:21:45Z</time></trkpt><trkpt lat="43.82074537241839" lon="2.879041478044639"><ele>386.0</ele><time>2026-04-02T11:21:46Z</time></trkpt><trkpt lat="43.82080716259901" lon="2.8790778060845237"><ele>385.99999999999994</ele><time>2026-04-02T11:21:47Z</time></trkpt><trkpt lat="43.8208407503446" lon="2.879153708811174"><ele>386.0</ele><time>2026-04-02T11:21:48Z</time></trkpt><trkpt lat="43.8208462623397" lon="2.8792500070866356"><ele>386.0</ele><time>2026-04-02T11:21:49Z</time></trkpt><trkpt lat="43.82082970700678" lon="2.879344241891669"><ele>386.0</ele><time>2026-04-02T11:21:50Z</time></trkpt><trkpt lat="43.820812759789185" lon="2.8794322361567346"><ele>385.99999999999994</ele><time>2026-04-02T11:21:51Z</time></trkpt><trkpt lat="43.82081418443589" lon="2.879560975564446"><ele>386.0</ele><time>2026-04-02T11:21:53Z</time></trkpt><trkpt lat="43.82080360172259" lon="2.879721475052812"><ele>386.8333333333333</ele><time>2026-04-02T11:23:51Z</time></trkpt><trkpt lat="43.8208073988264" lon="2.8798419023386033"><ele>387.66666666666663</ele><time>2026-04-02T11:23:52Z</time></trkpt><trkpt lat="43.820813323696754" lon="2.8799965217750043"><ele>388.5</ele><time>2026-04-02T11:23:54Z</time></trkpt><trkpt lat="43.820829096651174" lon="2.8801263262235604"><ele>389.33333333333337</ele><time>2026-04-02T11:23:56Z</time></trkpt><trkpt lat="43.82087988546009" lon="2.8801786467286563"><ele>390.1666666666667</ele><time>2026-04-02T11:23:57Z</time></trkpt><trkpt lat="43.82095054931216" lon="2.8801967577096392"><ele>391.0</ele><time>2026-04-02T11:23:58Z</time></trkpt><trkpt lat="43.82102192274827" lon="2.880194222443772"><ele>393.33333333333337</ele><time>2026-04-02T11:23:59Z</time></trkpt><trkpt lat="43.82109653758976" lon="2.8801915809815606"><ele>395.6666666666667</ele><time>2026-04-02T11:24:00Z</time></trkpt><trkpt lat="43.82118608677883" lon="2.8801882403570116"><ele>398.0</ele><time>2026-04-02T11:24:01Z</time></trkpt><trkpt lat="43.82128361729307" lon="2.8801978457440116"><ele>400.33333333333337</ele><time>2026-04-02T11:24:02Z</time></trkpt><trkpt lat="43.82137161980381" lon="2.8802123987648796"><ele>402.6666666666667</ele><time>2026-04-02T11:24:03Z</time></trkpt><trkpt lat="43.82145840017743" lon="2.8802360554668383"><ele>405.0</ele><time>2026-04-02T11:24:04Z</time></trkpt><trkpt lat="43.8215376787487" lon="2.88029657409344"><ele>405.0</ele><time>2026-04-02T11:24:05Z</time></trkpt><trkpt lat="43.82161947754945" lon="2.8803521156621215"><ele>405.0</ele><time>2026-04-02T11:24:06Z</time></trkpt><trkpt lat="43.82170461257893" lon="2.8804152783344374"><ele>405.0</ele><time>2026-04-02T11:24:07Z</time></trkpt><trkpt lat="43.82179415507982" lon="2.88047497669194"><ele>405.0</ele><time>2026-04-02T11:24:08Z</time></trkpt><trkpt lat="43.82188709187507" lon="2.8805348824311023"><ele>405.0</ele><time>2026-04-02T11:24:09Z</time></trkpt><trkpt lat="43.821977572532326" lon="2.880593153714917"><ele>403.4</ele><time>2026-04-02T11:24:10Z</time></trkpt><trkpt lat="43.822062140823185" lon="2.8806481047003603"><ele>401.8</ele><time>2026-04-02T11:24:11Z</time></trkpt><trkpt lat="43.822131599742065" lon="2.8806950586688846"><ele>400.20000000000005</ele><time>2026-04-02T11:24:12Z</time></trkpt><trkpt lat="43.82221235752439" lon="2.880733436545709"><ele>398.6</ele><time>2026-04-02T11:24:13Z</time></trkpt><trkpt lat="43.82231387180021" lon="2.880732952614819"><ele>397.0</ele><time>2026-04-02T11:24:14Z</time></trkpt><trkpt lat="43.8224267439616" lon="2.8807284469245764"><ele>397.0</ele><time>2026-04-02T11:24:15Z</time></trkpt><trkpt lat="43.82255199737023" lon="2.8807322525624133"><ele>397.0</ele><time>2026-04-02T11:24:16Z</time></trkpt><trkpt lat="43.82267410368169" lon="2.8807483334326247"><ele>397.0</ele><time>2026-04-02T11:24:17Z</time></trkpt><trkpt lat="43.822792738480125" lon="2.880756370261098"><ele>397.0</ele><time>2026-04-02T11:24:18Z</time></trkpt><trkpt lat="43.82290768419838" lon="2.8807676227850343"><ele>395.75</ele><time>2026-04-02T11:24:19Z</time></trkpt><trkpt lat="43.823014473674974" lon="2.880789174357319"><ele>394.5</ele><time>2026-04-02T11:24:20Z</time></trkpt><trkpt lat="43.823114987348575" lon="2.880839649743436"><ele>393.25</ele><time>2026-04-02T11:24:21Z</time></trkpt><trkpt lat="43.82319629420766" lon="2.8809472708818316"><ele>392.0</ele><time>2026-04-02T11:24:22Z</time></trkpt><trkpt lat="43.82324749838283" lon="2.881102305524162"><ele>394.5</ele><time>2026-04-02T11:24:23Z</time></trkpt><trkpt lat="43.82328595680717" lon="2.8812474799458516"><ele>397.0</ele><time>2026-04-02T11:24:24Z</time></trkpt><trkpt lat="43.823260051913735" lon="2.8814122220148377"><ele>399.5</ele><time>2026-04-02T11:24:25Z</time></trkpt><trkpt lat="43.82326137212338" lon="2.881583287405091"><ele>402.0</ele><time>2026-04-02T11:24:26Z</time></trkpt><trkpt lat="43.82325390001799" lon="2.88176258947185"><ele>402.25</ele><time>2026-04-02T11:24:27Z</time></trkpt><trkpt lat="43.82325663838367" lon="2.8819679228110977"><ele>402.5</ele><time>2026-04-02T11:24:28Z</time></trkpt><trkpt lat="43.82325973711148" lon="2.8821614856374436"><ele>402.75</ele><time>2026-04-02T11:24:29Z</time></trkpt><trkpt lat="43.82326994032034" lon="2.8823390720762148"><ele>403.0</ele><time>2026-04-02T11:24:30Z</time></trkpt><trkpt lat="43.82330144932256" lon="2.88253502687723"><ele>404.33333333333337</ele><time>2026-04-02T11:24:31Z</time></trkpt><trkpt lat="43.82335676881151" lon="2.882756110419751"><ele>405.66666666666663</ele><time>2026-04-02T11:24:32Z</time></trkpt><trkpt lat="43.823415092624" lon="2.882990502526176"><ele>407.0</ele><time>2026-04-02T11:24:33Z</time></trkpt><trkpt lat="43.82347141700561" lon="2.8832280667344232"><ele>405.3333333333333</ele><time>2026-04-02T11:24:34Z</time></trkpt><trkpt lat="43.82353045759009" lon="2.883473752862225"><ele>403.66666666666663</ele><time>2026-04-02T11:24:35Z</time></trkpt><trkpt lat="43.823581041493576" lon="2.88374207726452"><ele>402.0</ele><time>2026-04-02T11:24:36Z</time></trkpt><trkpt lat="43.82365634826362" lon="2.883996731460766"><ele>402.0</ele><time>2026-04-02T11:24:37Z</time></trkpt><trkpt lat="43.82371222442459" lon="2.8842570693484024"><ele>402.0</ele><time>2026-04-02T11:24:38Z</time></trkpt><trkpt lat="43.823771516752394" lon="2.8845187306912297"><ele>402.0</ele><time>2026-04-02T11:24:39Z</time></trkpt><trkpt lat="43.823829383916255" lon="2.8847688789825816"><ele>403.33333333333337</ele><time>2026-04-02T11:24:40Z</time></trkpt><trkpt lat="43.823887171750805" lon="2.8850264899438613"><ele>404.6666666666667</ele><time>2026-04-02T11:24:41Z</time></trkpt><trkpt lat="43.82394778857383" lon="2.885276201628997"><ele>406.0</ele><time>2026-04-02T11:24:42Z</time></trkpt><trkpt lat="43.82399280575997" lon="2.8855308426079973"><ele>406.0</ele><time>2026-04-02T11:24:43Z</time></trkpt><trkpt lat="43.82404760324183" lon="2.8857713727074024"><ele>406.0</ele><time>2026-04-02T11:24:44Z</time></trkpt><trkpt lat="43.82412210968417" lon="2.8860186900420324"><ele>406.0</ele><time>2026-04-02T11:24:45Z</time></trkpt><trkpt lat="43.82418016230177" lon="2.8862694581664945"><ele>406.0</ele><time>2026-04-02T11:24:46Z</time></trkpt><trkpt lat="43.824225169334305" lon="2.8865093051938446"><ele>406.0</ele><time>2026-04-02T11:24:47Z</time></trkpt><trkpt lat="43.82424251835554" lon="2.8867303130788513"><ele>406.0</ele><time>2026-04-02T11:24:48Z</time></trkpt><trkpt lat="43.82424044186177" lon="2.886953309026705"><ele>406.0</ele><time>2026-04-02T11:24:49Z</time></trkpt><trkpt lat="43.824300911906235" lon="2.8871834511886454"><ele>406.0</ele><time>2026-04-02T11:24:50Z</time></trkpt><trkpt lat="43.824163561752776" lon="2.8874217445168076"><ele>406.0</ele><time>2026-04-02T11:24:51Z</time></trkpt><trkpt lat="43.8240611076643" lon="2.887659275388256"><ele>405.6666666666667</ele><time>2026-04-02T11:24:52Z</time></trkpt><trkpt lat="43.823955676346024" lon="2.887924870054663"><ele>405.33333333333337</ele><time>2026-04-02T11:24:53Z</time></trkpt><trkpt lat="43.82387190307114" lon="2.888191759502714"><ele>405.0</ele><time>2026-04-02T11:24:54Z</time></trkpt><trkpt lat="43.823787213779795" lon="2.888450290225149"><ele>403.66666666666663</ele><time>2026-04-02T11:24:55Z</time></trkpt><trkpt lat="43.82372320661902" lon="2.888682064874705"><ele>402.3333333333333</ele><time>2026-04-02T11:24:56Z</time></trkpt><trkpt lat="43.8236918920583" lon="2.8889180389546336"><ele>401.0</ele><time>2026-04-02T11:24:57Z</time></trkpt><trkpt lat="43.82370521545319" lon="2.889145941799879"><ele>401.66666666666663</ele><time>2026-04-02T11:24:58Z</time></trkpt><trkpt lat="43.82375706969314" lon="2.8893749509345756"><ele>402.33333333333337</ele><time>2026-04-02T11:24:59Z</time></trkpt><trkpt lat="43.82385535555247" lon="2.889611050536836"><ele>403.0</ele><time>2026-04-02T11:25:00Z</time></trkpt><trkpt lat="43.823978343111904" lon="2.8898395670290538"><ele>403.0</ele><time>2026-04-02T11:25:01Z</time></trkpt><trkpt lat="43.82411098789919" lon="2.890076940375788"><ele>403.0</ele><time>2026-04-02T11:25:02Z</time></trkpt><trkpt lat="43.82421948339136" lon="2.890336683886786"><ele>403.0</ele><time>2026-04-02T11:25:03Z</time></trkpt><trkpt lat="43.82434081460395" lon="2.890585529569786"><ele>402.33333333333337</ele><time>2026-04-02T11:25:04Z</time></trkpt><trkpt lat="43.82446501676578" lon="2.8908358787898765"><ele>401.66666666666663</ele><time>2026-04-02T11:25:05Z</time></trkpt><trkpt lat="43.82459923325453" lon="2.8910666845919373"><ele>401.0</ele><time>2026-04-02T11:25:06Z</time></trkpt><trkpt lat="43.82471788529246" lon="2.8913226378993797"><ele>401.0</ele><time>2026-04-02T11:25:07Z</time></trkpt><trkpt lat="43.824836033531945" lon="2.891566480836675"><ele>401.0</ele><time>2026-04-02T11:25:08Z</time></trkpt><trkpt lat="43.824957520866555" lon="2.891806173827869"><ele>401.0</ele><time>2026-04-02T11:25:09Z</time></trkpt><trkpt lat="43.82506658911663" lon="2.8920605270761857"><ele>399.3333333333333</ele><time>2026-04-02T11:25:10Z</time></trkpt><trkpt lat="43.82518272418253" lon="2.892295333781635"><ele>397.66666666666663</ele><time>2026-04-02T11:25:11Z</time></trkpt><trkpt lat="43.82532572333246" lon="2.8925181243982236"><ele>396.0</ele><time>2026-04-02T11:25:12Z</time></trkpt><trkpt lat="43.82547498457745" lon="2.892727640164128"><ele>401.0</ele><time>2026-04-02T11:25:13Z</time></trkpt><trkpt lat="43.82564991512388" lon="2.8929304766051587"><ele>406.0</ele><time>2026-04-02T11:25:14Z</time></trkpt><trkpt lat="43.825830565780876" lon="2.893123911164333"><ele>404.5</ele><time>2026-04-02T11:25:15Z</time></trkpt><trkpt lat="43.82600168799829" lon="2.8933253152236977"><ele>403.0</ele><time>2026-04-02T11:25:16Z</time></trkpt><trkpt lat="43.82617637988183" lon="2.89352423201851"><ele>403.0</ele><time>2026-04-02T11:25:17Z</time></trkpt><trkpt lat="43.82634358276309" lon="2.8937141454403306"><ele>403.0</ele><time>2026-04-02T11:25:18Z</time></trkpt><trkpt lat="43.82652055085287" lon="2.893915086844468"><ele>403.0</ele><time>2026-04-02T11:25:19Z</time></trkpt><trkpt lat="43.82669408673693" lon="2.894114055192728"><ele>402.33333333333337</ele><time>2026-04-02T11:25:20Z</time></trkpt><trkpt lat="43.82686870083095" lon="2.8943135802716844"><ele>401.66666666666663</ele><time>2026-04-02T11:25:21Z</time></trkpt><trkpt lat="43.82703255734016" lon="2.894510359046199"><ele>401.0</ele><time>2026-04-02T11:25:22Z</time></trkpt><trkpt lat="43.827182663782445" lon="2.8946949953983103"><ele>401.0</ele><time>2026-04-02T11:25:23Z</time></trkpt><trkpt lat="43.82731645828951" lon="2.8948519158849204"><ele>401.0</ele><time>2026-04-02T11:25:24Z</time></trkpt><trkpt lat="43.82743255934511" lon="2.8950044758809144"><ele>401.0</ele><time>2026-04-02T11:25:25Z</time></trkpt><trkpt lat="43.82749561424873" lon="2.8952175736396435"><ele>401.0</ele><time>2026-04-02T11:25:26Z</time></trkpt><trkpt lat="43.82753226584625" lon="2.8954626685622062"><ele>401.0</ele><time>2026-04-02T11:25:27Z</time></trkpt><trkpt lat="43.82756125661312" lon="2.8957457639937445"><ele>401.0</ele><time>2026-04-02T11:25:28Z</time></trkpt><trkpt lat="43.827623102782375" lon="2.8960242728804326"><ele>399.66666666666663</ele><time>2026-04-02T11:25:29Z</time></trkpt><trkpt lat="43.82769791317258" lon="2.896282772397132"><ele>398.33333333333337</ele><time>2026-04-02T11:25:30Z</time></trkpt><trkpt lat="43.82784151182452" lon="2.8965278513368284"><ele>397.0</ele><time>2026-04-02T11:25:31Z</time></trkpt><trkpt lat="43.82802354716353" lon="2.8967467495806245"><ele>399.5</ele><time>2026-04-02T11:25:32Z</time></trkpt><trkpt lat="43.828220724777616" lon="2.896941448148727"><ele>402.0</ele><time>2026-04-02T11:25:33Z</time></trkpt><trkpt lat="43.8284041129024" lon="2.897159384473567"><ele>399.5</ele><time>2026-04-02T11:25:34Z</time></trkpt><trkpt lat="43.828593566022874" lon="2.897341371351354"><ele>397.0</ele><time>2026-04-02T11:25:35Z</time></trkpt><trkpt lat="43.82877413201349" lon="2.8975476350133706"><ele>398.5</ele><time>2026-04-02T11:25:36Z</time></trkpt><trkpt lat="43.82895703492102" lon="2.8977454101082825"><ele>400.0</ele><time>2026-04-02T11:25:37Z</time></trkpt><trkpt lat="43.82912547263386" lon="2.8979621066054455"><ele>396.5</ele><time>2026-04-02T11:25:38Z</time></trkpt><trkpt lat="43.82931605158847" lon="2.8981544502166177"><ele>393.0</ele><time>2026-04-02T11:25:39Z</time></trkpt><trkpt lat="43.82948363625088" lon="2.89835232647232"><ele>394.33333333333337</ele><time>2026-04-02T11:25:40Z</time></trkpt><trkpt lat="43.829624094728004" lon="2.8985805444836665"><ele>395.6666666666667</ele><time>2026-04-02T11:25:41Z</time></trkpt><trkpt lat="43.829754110505725" lon="2.898833290859835"><ele>397.0</ele><time>2026-04-02T11:25:42Z</time></trkpt><trkpt lat="43.8298633834176" lon="2.8991010619803625"><ele>397.33333333333337</ele><time>2026-04-02T11:25:43Z</time></trkpt><trkpt lat="43.82996722364425" lon="2.8993672516337634"><ele>397.66666666666663</ele><time>2026-04-02T11:25:44Z</time></trkpt><trkpt lat="43.83007382115196" lon="2.8995940840151744"><ele>398.0</ele><time>2026-04-02T11:25:45Z</time></trkpt><trkpt lat="43.830163415387695" lon="2.899825905882278"><ele>397.0</ele><time>2026-04-02T11:25:46Z</time></trkpt><trkpt lat="43.83025264046043" lon="2.900038571486273"><ele>396.0</ele><time>2026-04-02T11:25:47Z</time></trkpt><trkpt lat="43.830382282343855" lon="2.9002021523785464"><ele>395.0</ele><time>2026-04-02T11:25:48Z</time></trkpt><trkpt lat="43.83055301589247" lon="2.9003255143767626"><ele>395.0</ele><time>2026-04-02T11:25:49Z</time></trkpt><trkpt lat="43.83075627266081" lon="2.900404949040999"><ele>395.0</ele><time>2026-04-02T11:25:50Z</time></trkpt><trkpt lat="43.83095569748792" lon="2.9004522048793793"><ele>395.0</ele><time>2026-04-02T11:25:51Z</time></trkpt><trkpt lat="43.83113517960381" lon="2.9005231539911915"><ele>395.0</ele><time>2026-04-02T11:25:52Z</time></trkpt><trkpt lat="43.83127168824678" lon="2.9006416663772674"><ele>395.0</ele><time>2026-04-02T11:25:53Z</time></trkpt><trkpt lat="43.8314363531522" lon="2.900926308394117"><ele>395.0</ele><time>2026-04-02T11:25:55Z</time></trkpt><trkpt lat="43.83155506760912" lon="2.9010330096613743"><ele>395.3333333333333</ele><time>2026-04-02T11:25:56Z</time></trkpt><trkpt lat="43.83170483196824" lon="2.901162711083856"><ele>395.66666666666663</ele><time>2026-04-02T11:25:57Z</time></trkpt><trkpt lat="43.83185634341354" lon="2.901335181461981"><ele>396.0</ele><time>2026-04-02T11:25:58Z</time></trkpt><trkpt lat="43.832018011997754" lon="2.9015143209664522"><ele>396.0</ele><time>2026-04-02T11:25:59Z</time></trkpt><trkpt lat="43.8321769747855" lon="2.901688541605956"><ele>396.0</ele><time>2026-04-02T11:26:00Z</time></trkpt><trkpt lat="43.83233203519564" lon="2.901858539527261"><ele>396.0</ele><time>2026-04-02T11:26:01Z</time></trkpt><trkpt lat="43.8324930442105" lon="2.9020219937955933"><ele>396.33333333333337</ele><time>2026-04-02T11:26:02Z</time></trkpt><trkpt lat="43.83266064250414" lon="2.9021459425747875"><ele>396.6666666666667</ele><time>2026-04-02T11:26:03Z</time></trkpt><trkpt lat="43.83284581823809" lon="2.9022144195121022"><ele>397.0</ele><time>2026-04-02T11:26:04Z</time></trkpt><trkpt lat="43.833041021005265" lon="2.902228159308099"><ele>397.0</ele><time>2026-04-02T11:26:05Z</time></trkpt><trkpt lat="43.83324929282192" lon="2.902200897874387"><ele>397.0</ele><time>2026-04-02T11:26:06Z</time></trkpt><trkpt lat="43.833463851169945" lon="2.9021509581221165"><ele>397.0</ele><time>2026-04-02T11:26:07Z</time></trkpt><trkpt lat="43.833667462577665" lon="2.902123882548273"><ele>397.6666666666667</ele><time>2026-04-02T11:26:08Z</time></trkpt><trkpt lat="43.833871787223494" lon="2.902100887174486"><ele>398.33333333333337</ele><time>2026-04-02T11:26:09Z</time></trkpt><trkpt lat="43.834068888898486" lon="2.902092733549969"><ele>399.0</ele><time>2026-04-02T11:26:10Z</time></trkpt><trkpt lat="43.83425915019138" lon="2.9021155795578806"><ele>400.66666666666663</ele><time>2026-04-02T11:26:11Z</time></trkpt><trkpt lat="43.83444670924312" lon="2.9021827249117833"><ele>402.3333333333333</ele><time>2026-04-02T11:26:12Z</time></trkpt><trkpt lat="43.83463672673661" lon="2.9022655550691137"><ele>404.0</ele><time>2026-04-02T11:26:13Z</time></trkpt><trkpt lat="43.83482767940122" lon="2.9023538893739382"><ele>404.0</ele><time>2026-04-02T11:26:14Z</time></trkpt><trkpt lat="43.83502475080778" lon="2.902449553126771"><ele>404.0</ele><time>2026-04-02T11:26:15Z</time></trkpt><trkpt lat="43.83521881614411" lon="2.9025311791115804"><ele>404.0</ele><time>2026-04-02T11:26:16Z</time></trkpt><trkpt lat="43.8354127723198" lon="2.902602087432343"><ele>405.66666666666663</ele><time>2026-04-02T11:26:17Z</time></trkpt><trkpt lat="43.83560053160079" lon="2.9026833887264116"><ele>407.33333333333337</ele><time>2026-04-02T11:26:18Z</time></trkpt><trkpt lat="43.83579221634289" lon="2.902764503518179"><ele>409.0</ele><time>2026-04-02T11:26:19Z</time></trkpt><trkpt lat="43.83597708040916" lon="2.902841351789776"><ele>409.6666666666667</ele><time>2026-04-02T11:26:20Z</time></trkpt><trkpt lat="43.83616377315365" lon="2.902916253856517"><ele>410.33333333333337</ele><time>2026-04-02T11:26:21Z</time></trkpt><trkpt lat="43.836354602500975" lon="2.902995081683868"><ele>411.0</ele><time>2026-04-02T11:26:22Z</time></trkpt><trkpt lat="43.83653762361582" lon="2.903068179592894"><ele>411.0</ele><time>2026-04-02T11:26:23Z</time></trkpt><trkpt lat="43.83672675803414" lon="2.9031428929909984"><ele>411.0</ele><time>2026-04-02T11:26:24Z</time></trkpt><trkpt lat="43.836914385100826" lon="2.903220757284867"><ele>411.0</ele><time>2026-04-02T11:26:25Z</time></trkpt><trkpt lat="43.83710230731061" lon="2.903301067132433"><ele>411.33333333333337</ele><time>2026-04-02T11:26:26Z</time></trkpt><trkpt lat="43.83728341943261" lon="2.9033778102620995"><ele>411.6666666666667</ele><time>2026-04-02T11:26:27Z</time></trkpt><trkpt lat="43.837450325722834" lon="2.9034445742047486"><ele>412.0</ele><time>2026-04-02T11:26:28Z</time></trkpt><trkpt lat="43.83759884006552" lon="2.9034959298118004"><ele>412.0</ele><time>2026-04-02T11:26:29Z</time></trkpt><trkpt lat="43.83774019064652" lon="2.9034979685240327"><ele>412.0</ele><time>2026-04-02T11:26:30Z</time></trkpt><trkpt lat="43.83788537254291" lon="2.9034240078315645"><ele>412.0</ele><time>2026-04-02T11:26:31Z</time></trkpt><trkpt lat="43.838008518808685" lon="2.9032660534935726"><ele>412.0</ele><time>2026-04-02T11:26:32Z</time></trkpt><trkpt lat="43.83809397294321" lon="2.9030542138746958"><ele>412.0</ele><time>2026-04-02T11:26:33Z</time></trkpt><trkpt lat="43.8381622899974" lon="2.9028254211421998"><ele>412.0</ele><time>2026-04-02T11:26:34Z</time></trkpt><trkpt lat="43.83824052997679" lon="2.902609247714252"><ele>412.0</ele><time>2026-04-02T11:26:35Z</time></trkpt><trkpt lat="43.83831630256792" lon="2.902422066975009"><ele>412.0</ele><time>2026-04-02T11:26:36Z</time></trkpt><trkpt lat="43.838413561023295" lon="2.9022599921809746"><ele>412.0</ele><time>2026-04-02T11:26:37Z</time></trkpt><trkpt lat="43.8385421903284" lon="2.9021455323822662"><ele>413.6666666666667</ele><time>2026-04-02T11:26:38Z</time></trkpt><trkpt lat="43.838707287708914" lon="2.9020539236844787"><ele>415.33333333333337</ele><time>2026-04-02T11:26:39Z</time></trkpt><trkpt lat="43.83887662148716" lon="2.9019781512121243"><ele>417.0</ele><time>2026-04-02T11:26:40Z</time></trkpt><trkpt lat="43.839053049527635" lon="2.901939634234135"><ele>417.0</ele><time>2026-04-02T11:26:41Z</time></trkpt><trkpt lat="43.839230086736585" lon="2.9019509994459525"><ele>417.0</ele><time>2026-04-02T11:26:42Z</time></trkpt><trkpt lat="43.83941048401603" lon="2.901990912787707"><ele>417.0</ele><time>2026-04-02T11:26:43Z</time></trkpt><trkpt lat="43.839585602721776" lon="2.9020309623760094"><ele>418.66666666666663</ele><time>2026-04-02T11:26:44Z</time></trkpt><trkpt lat="43.839760747022424" lon="2.9020713379400602"><ele>420.3333333333333</ele><time>2026-04-02T11:26:45Z</time></trkpt><trkpt lat="43.83993058697" lon="2.9021279050107127"><ele>422.0</ele><time>2026-04-02T11:26:46Z</time></trkpt><trkpt lat="43.84009990765074" lon="2.902190516570817"><ele>423.0</ele><time>2026-04-02T11:26:47Z</time></trkpt><trkpt lat="43.84027324240752" lon="2.9022522780951565"><ele>424.0</ele><time>2026-04-02T11:26:48Z</time></trkpt><trkpt lat="43.840446074329584" lon="2.9023230030885285"><ele>425.0</ele><time>2026-04-02T11:26:49Z</time></trkpt><trkpt lat="43.84061010026809" lon="2.9023969491964885"><ele>425.0</ele><time>2026-04-02T11:26:50Z</time></trkpt><trkpt lat="43.84076496136524" lon="2.9024626397016875"><ele>425.0</ele><time>2026-04-02T11:26:51Z</time></trkpt><trkpt lat="43.84091175585507" lon="2.902527491355037"><ele>425.0</ele><time>2026-04-02T11:26:52Z</time></trkpt><trkpt lat="43.841062177457474" lon="2.902597247635796"><ele>425.66666666666663</ele><time>2026-04-02T11:26:53Z</time></trkpt><trkpt lat="43.84121920922064" lon="2.9026229936650187"><ele>426.33333333333337</ele><time>2026-04-02T11:26:54Z</time></trkpt><trkpt lat="43.841384040967085" lon="2.9025803796512792"><ele>427.0</ele><time>2026-04-02T11:26:55Z</time></trkpt><trkpt lat="43.841561095519396" lon="2.902455451847831"><ele>427.0</ele><time>2026-04-02T11:26:56Z</time></trkpt><trkpt lat="43.84172730131808" lon="2.9023241043307713"><ele>427.0</ele><time>2026-04-02T11:26:57Z</time></trkpt><trkpt lat="43.8419053913934" lon="2.9021975663370134"><ele>427.0</ele><time>2026-04-02T11:26:58Z</time></trkpt><trkpt lat="43.84210563449988" lon="2.9020982119479686"><ele>428.6666666666667</ele><time>2026-04-02T11:26:59Z</time></trkpt><trkpt lat="43.84230256619788" lon="2.9019716617885876"><ele>430.33333333333337</ele><time>2026-04-02T11:27:00Z</time></trkpt><trkpt lat="43.8424936134072" lon="2.9018464293692823"><ele>432.0</ele><time>2026-04-02T11:27:01Z</time></trkpt><trkpt lat="43.84268485183855" lon="2.901721997892643"><ele>433.66666666666663</ele><time>2026-04-02T11:27:02Z</time></trkpt><trkpt lat="43.8428607183217" lon="2.901582513849277"><ele>435.3333333333333</ele><time>2026-04-02T11:27:03Z</time></trkpt><trkpt lat="43.8430324939342" lon="2.901470581009414"><ele>437.0</ele><time>2026-04-02T11:27:04Z</time></trkpt><trkpt lat="43.84319459494577" lon="2.901360143504733"><ele>437.0</ele><time>2026-04-02T11:27:05Z</time></trkpt><trkpt lat="43.84334705081902" lon="2.901282154450101"><ele>437.0</ele><time>2026-04-02T11:27:06Z</time></trkpt><trkpt lat="43.843470050135956" lon="2.901175158932033"><ele>437.0</ele><time>2026-04-02T11:27:07Z</time></trkpt><trkpt lat="43.84359614131433" lon="2.901084357866297"><ele>438.0</ele><time>2026-04-02T11:27:08Z</time></trkpt><trkpt lat="43.8437229368807" lon="2.9009796618339556"><ele>439.0</ele><time>2026-04-02T11:27:09Z</time></trkpt><trkpt lat="43.84385994120148" lon="2.9008657206010264"><ele>440.0</ele><time>2026-04-02T11:27:10Z</time></trkpt><trkpt lat="43.843998696932346" lon="2.900756673070067"><ele>440.0</ele><time>2026-04-02T11:27:11Z</time></trkpt><trkpt lat="43.84413597309021" lon="2.900648119582055"><ele>440.0</ele><time>2026-04-02T11:27:12Z</time></trkpt><trkpt lat="43.84426284175663" lon="2.900546495090853"><ele>440.0</ele><time>2026-04-02T11:27:13Z</time></trkpt><trkpt lat="43.84436994288227" lon="2.9004589546680974"><ele>440.0</ele><time>2026-04-02T11:27:14Z</time></trkpt><trkpt lat="43.84445602722874" lon="2.9003671900263486"><ele>442.0</ele><time>2026-04-02T11:27:15Z</time></trkpt><trkpt lat="43.84451291480985" lon="2.9002577389040636"><ele>444.0</ele><time>2026-04-02T11:27:16Z</time></trkpt><trkpt lat="43.844544510128614" lon="2.9001067448310907"><ele>446.0</ele><time>2026-04-02T11:27:17Z</time></trkpt><trkpt lat="43.84458172983516" lon="2.899911381140934"><ele>448.0</ele><time>2026-04-02T11:27:18Z</time></trkpt><trkpt lat="43.84462847110857" lon="2.8996977182330914"><ele>448.33333333333337</ele><time>2026-04-02T11:27:19Z</time></trkpt><trkpt lat="43.84467749098481" lon="2.899470433752209"><ele>448.66666666666663</ele><time>2026-04-02T11:27:20Z</time></trkpt><trkpt lat="43.84470468722323" lon="2.8992508485364987"><ele>449.0</ele><time>2026-04-02T11:27:21Z</time></trkpt><trkpt lat="43.84469630497083" lon="2.8990304999386045"><ele>449.0</ele><time>2026-04-02T11:27:22Z</time></trkpt><trkpt lat="43.8446706522784" lon="2.898802817586801"><ele>449.0</ele><time>2026-04-02T11:27:23Z</time></trkpt><trkpt lat="43.84467015158517" lon="2.8985819825257506"><ele>449.0</ele><time>2026-04-02T11:27:24Z</time></trkpt><trkpt lat="43.844708560698805" lon="2.8983812072909787"><ele>448.75</ele><time>2026-04-02T11:27:25Z</time></trkpt><trkpt lat="43.84480374339465" lon="2.8982167897228566"><ele>448.5</ele><time>2026-04-02T11:27:26Z</time></trkpt><trkpt lat="43.84490609046126" lon="2.8980820026307845"><ele>448.25</ele><time>2026-04-02T11:27:27Z</time></trkpt><trkpt lat="43.84502307347554" lon="2.8980298015417896"><ele>448.0</ele><time>2026-04-02T11:27:28Z</time></trkpt><trkpt lat="43.84514057917109" lon="2.8980523896433774"><ele>449.25</ele><time>2026-04-02T11:27:29Z</time></trkpt><trkpt lat="43.84526197394066" lon="2.8981331476264214"><ele>450.5</ele><time>2026-04-02T11:27:30Z</time></trkpt><trkpt lat="43.845403880725236" lon="2.898216931740914"><ele>451.75</ele><time>2026-04-02T11:27:31Z</time></trkpt><trkpt lat="43.84555040722685" lon="2.8982820413759858"><ele>453.0</ele><time>2026-04-02T11:27:32Z</time></trkpt><trkpt lat="43.84569661947328" lon="2.898374601622132"><ele>454.0</ele><time>2026-04-02T11:27:33Z</time></trkpt><trkpt lat="43.845852822544586" lon="2.898457258500268"><ele>455.0</ele><time>2026-04-02T11:27:34Z</time></trkpt><trkpt lat="43.846018111382804" lon="2.8985507643855866"><ele>456.0</ele><time>2026-04-02T11:27:35Z</time></trkpt><trkpt lat="43.84618398831056" lon="2.898625856121485"><ele>458.0</ele><time>2026-04-02T11:27:36Z</time></trkpt><trkpt lat="43.846350384898685" lon="2.898656784731819"><ele>460.0</ele><time>2026-04-02T11:27:37Z</time></trkpt><trkpt lat="43.846522171662066" lon="2.898645135389254"><ele>462.0</ele><time>2026-04-02T11:27:38Z</time></trkpt><trkpt lat="43.846679198908376" lon="2.8986011901825655"><ele>462.0</ele><time>2026-04-02T11:27:39Z</time></trkpt><trkpt lat="43.846808323535576" lon="2.898514994691073"><ele>462.0</ele><time>2026-04-02T11:27:40Z</time></trkpt><trkpt lat="43.84691976140342" lon="2.898360484564154"><ele>462.0</ele><time>2026-04-02T11:27:41Z</time></trkpt><trkpt lat="43.84701094549323" lon="2.898162781262736"><ele>462.0</ele><time>2026-04-02T11:27:42Z</time></trkpt><trkpt lat="43.84709637808607" lon="2.897991853887499"><ele>462.00000000000006</ele><time>2026-04-02T11:27:43Z</time></trkpt><trkpt lat="43.84720687796192" lon="2.8979238633751896"><ele>462.00000000000006</ele><time>2026-04-02T11:27:44Z</time></trkpt><trkpt lat="43.84728238455222" lon="2.897992376093218"><ele>462.0</ele><time>2026-04-02T11:27:45Z</time></trkpt><trkpt lat="43.84734825437282" lon="2.8980606825036554"><ele>462.0</ele><time>2026-04-02T11:27:46Z</time></trkpt><trkpt lat="43.84744670701864" lon="2.898154179604278"><ele>462.0</ele><time>2026-04-02T11:27:47Z</time></trkpt><trkpt lat="43.84756362124787" lon="2.8982713858045606"><ele>462.0</ele><time>2026-04-02T11:27:48Z</time></trkpt><trkpt lat="43.84767565944312" lon="2.898392515683683"><ele>462.0</ele><time>2026-04-02T11:27:49Z</time></trkpt><trkpt lat="43.847749733751144" lon="2.898545540540133"><ele>462.0</ele><time>2026-04-02T11:27:50Z</time></trkpt><trkpt lat="43.84780002684232" lon="2.898720662573782"><ele>463.0</ele><time>2026-04-02T11:27:51Z</time></trkpt><trkpt lat="43.84784047526613" lon="2.8988916975599994"><ele>464.00000000000006</ele><time>2026-04-02T11:27:52Z</time></trkpt><trkpt lat="43.84790391790272" lon="2.899027859083226"><ele>465.00000000000006</ele><time>2026-04-02T11:27:53Z</time></trkpt><trkpt lat="43.8479645029358" lon="2.8991441149213677"><ele>466.0</ele><time>2026-04-02T11:27:54Z</time></trkpt><trkpt lat="43.848048216089914" lon="2.899212826474295"><ele>467.0</ele><time>2026-04-02T11:27:55Z</time></trkpt><trkpt lat="43.84813178054126" lon="2.8992194973783536"><ele>467.0</ele><time>2026-04-02T11:27:56Z</time></trkpt><trkpt lat="43.848194801368926" lon="2.8992056553914014"><ele>467.00000000000006</ele><time>2026-04-02T11:27:57Z</time></trkpt><trkpt lat="43.848258302631514" lon="2.899208549452776"><ele>467.00000000000006</ele><time>2026-04-02T11:27:59Z</time></trkpt><trkpt lat="43.848185798688405" lon="2.8994271815111867"><ele>467.0</ele><time>2026-04-02T11:28:05Z</time></trkpt><trkpt lat="43.84814800564322" lon="2.8995207489067205"><ele>467.0</ele><time>2026-04-02T11:28:08Z</time></trkpt><trkpt lat="43.84808858401606" lon="2.89962197385859"><ele>467.8333333333333</ele><time>2026-04-02T11:28:11Z</time></trkpt><trkpt lat="43.84807700054439" lon="2.899740386661688"><ele>468.66666666666663</ele><time>2026-04-02T11:28:13Z</time></trkpt><trkpt lat="43.84810935922317" lon="2.8998622423811278"><ele>469.5</ele><time>2026-04-02T11:28:15Z</time></trkpt><trkpt lat="43.848163690735554" lon="2.899982760332424"><ele>470.33333333333337</ele><time>2026-04-02T11:28:17Z</time></trkpt><trkpt lat="43.84818286664915" lon="2.9000739345798996"><ele>471.1666666666667</ele><time>2026-04-02T11:28:19Z</time></trkpt><trkpt lat="43.84815665387878" lon="2.9001592200791766"><ele>472.0</ele><time>2026-04-02T11:28:21Z</time></trkpt><trkpt lat="43.84817788730319" lon="2.90025211961207"><ele>472.00000000000006</ele><time>2026-04-02T11:28:24Z</time></trkpt><trkpt lat="43.84820018827878" lon="2.9001574866386663"><ele>472.0</ele><time>2026-04-02T11:31:29Z</time></trkpt><trkpt lat="43.84817854090822" lon="2.900041930505552"><ele>472.0</ele><time>2026-04-02T11:31:31Z</time></trkpt><trkpt lat="43.84816088711192" lon="2.8999364240832"><ele>472.0</ele><time>2026-04-02T11:31:34Z</time></trkpt><trkpt lat="43.84812393293591" lon="2.8998491004163607"><ele>472.00000000000006</ele><time>2026-04-02T11:31:36Z</time></trkpt><trkpt lat="43.84809243275279" lon="2.899768369454478"><ele>472.0</ele><time>2026-04-02T11:31:38Z</time></trkpt><trkpt lat="43.848076456655946" lon="2.8996371283373987"><ele>472.0</ele><time>2026-04-02T11:31:40Z</time></trkpt><trkpt lat="43.84811423896716" lon="2.899513274394484"><ele>472.00000000000006</ele><time>2026-04-02T11:31:42Z</time></trkpt><trkpt lat="43.848187791020194" lon="2.899439369902721"><ele>472.00000000000006</ele><time>2026-04-02T11:31:44Z</time></trkpt><trkpt lat="43.84824116297157" lon="2.8993300180660926"><ele>472.0</ele><time>2026-04-02T11:31:46Z</time></trkpt><trkpt lat="43.84825904160482" lon="2.899224724882922"><ele>472.0</ele><time>2026-04-02T11:31:48Z</time></trkpt><trkpt lat="43.84831909742617" lon="2.899083997283102"><ele>472.20000000000005</ele><time>2026-04-02T11:31:50Z</time></trkpt><trkpt lat="43.848369921610974" lon="2.89900845312719"><ele>472.40000000000003</ele><time>2026-04-02T11:31:51Z</time></trkpt><trkpt lat="43.848434616372195" lon="2.8989205093431814"><ele>472.59999999999997</ele><time>2026-04-02T11:31:52Z</time></trkpt><trkpt lat="43.848503717564384" lon="2.898804120680975"><ele>472.79999999999995</ele><time>2026-04-02T11:31:53Z</time></trkpt><trkpt lat="43.84858711129215" lon="2.8986321198992515"><ele>473.0</ele><time>2026-04-02T11:31:54Z</time></trkpt><trkpt lat="43.84868955305478" lon="2.8984195486201227"><ele>472.3333333333333</ele><time>2026-04-02T11:31:55Z</time></trkpt><trkpt lat="43.848790231957246" lon="2.8982029922362806"><ele>471.66666666666663</ele><time>2026-04-02T11:31:56Z</time></trkpt><trkpt lat="43.84890584616552" lon="2.8979631164296102"><ele>471.0</ele><time>2026-04-02T11:31:57Z</time></trkpt><trkpt lat="43.84901295735347" lon="2.897746787122746"><ele>471.0</ele><time>2026-04-02T11:31:58Z</time></trkpt><trkpt lat="43.849102834899604" lon="2.897554404757457"><ele>471.0</ele><time>2026-04-02T11:31:59Z</time></trkpt><trkpt lat="43.84920500523229" lon="2.8973345580281316"><ele>471.0</ele><time>2026-04-02T11:32:00Z</time></trkpt><trkpt lat="43.8493129833951" lon="2.897112858503207"><ele>472.0</ele><time>2026-04-02T11:32:01Z</time></trkpt><trkpt lat="43.84939971981425" lon="2.8969332451912133"><ele>473.0</ele><time>2026-04-02T11:32:02Z</time></trkpt><trkpt lat="43.84948606915106" lon="2.89680187226648"><ele>474.0</ele><time>2026-04-02T11:32:03Z</time></trkpt><trkpt lat="43.849570176568605" lon="2.8966988331431778"><ele>475.0</ele><time>2026-04-02T11:32:04Z</time></trkpt><trkpt lat="43.849654259372784" lon="2.8966153550962135"><ele>473.2</ele><time>2026-04-02T11:32:05Z</time></trkpt><trkpt lat="43.84972291115496" lon="2.8965362334040288"><ele>471.4</ele><time>2026-04-02T11:32:06Z</time></trkpt><trkpt lat="43.84980670098008" lon="2.8964804453674176"><ele>469.6</ele><time>2026-04-02T11:32:08Z</time></trkpt><trkpt lat="43.84985882826125" lon="2.8964216487979426"><ele>467.8</ele><time>2026-04-02T11:34:09Z</time></trkpt><trkpt lat="43.84996231470907" lon="2.896327795546521"><ele>466.0</ele><time>2026-04-02T11:34:10Z</time></trkpt><trkpt lat="43.85008268428882" lon="2.896220668172179"><ele>467.33333333333337</ele><time>2026-04-02T11:34:11Z</time></trkpt><trkpt lat="43.850255250531475" lon="2.8960928188532113"><ele>468.66666666666663</ele><time>2026-04-02T11:34:12Z</time></trkpt><trkpt lat="43.8504033128114" lon="2.8959633436741594"><ele>470.0</ele><time>2026-04-02T11:34:13Z</time></trkpt><trkpt lat="43.850526815274925" lon="2.8958355887453497"><ele>468.0</ele><time>2026-04-02T11:34:14Z</time></trkpt><trkpt lat="43.85064418992634" lon="2.8957292110969037"><ele>466.0</ele><time>2026-04-02T11:34:15Z</time></trkpt><trkpt lat="43.85074430550069" lon="2.895586978319132"><ele>464.0</ele><time>2026-04-02T11:34:16Z</time></trkpt><trkpt lat="43.85083620100276" lon="2.895430831563843"><ele>462.0</ele><time>2026-04-02T11:34:17Z</time></trkpt><trkpt lat="43.85092180680716" lon="2.8952924646785325"><ele>461.40000000000003</ele><time>2026-04-02T11:34:18Z</time></trkpt><trkpt lat="43.85102840304047" lon="2.8952144144150376"><ele>460.80000000000007</ele><time>2026-04-02T11:34:19Z</time></trkpt><trkpt lat="43.8511322722787" lon="2.8952092290285"><ele>460.2</ele><time>2026-04-02T11:34:20Z</time></trkpt><trkpt lat="43.85122806125013" lon="2.8952377628077617"><ele>459.6</ele><time>2026-04-02T11:34:21Z</time></trkpt><trkpt lat="43.85129328551926" lon="2.895300775210911"><ele>459.0</ele><time>2026-04-02T11:34:22Z</time></trkpt><trkpt lat="43.8513572624259" lon="2.8953569193361357"><ele>459.0</ele><time>2026-04-02T11:34:23Z</time></trkpt><trkpt lat="43.85141932272413" lon="2.8954131290694907"><ele>459.0</ele><time>2026-04-02T11:34:24Z</time></trkpt><trkpt lat="43.8515022502326" lon="2.8954610081367766"><ele>459.0</ele><time>2026-04-02T11:34:25Z</time></trkpt><trkpt lat="43.85159898923773" lon="2.8955365415425307"><ele>459.0</ele><time>2026-04-02T11:34:26Z</time></trkpt><trkpt lat="43.851693108978786" lon="2.8955912326116664"><ele>459.0</ele><time>2026-04-02T11:34:27Z</time></trkpt><trkpt lat="43.851792059946646" lon="2.8956048644923946"><ele>458.79999999999995</ele><time>2026-04-02T11:34:28Z</time></trkpt><trkpt lat="43.85187862045231" lon="2.8955591581730418"><ele>458.59999999999997</ele><time>2026-04-02T11:34:29Z</time></trkpt><trkpt lat="43.85195351458996" lon="2.895478176639136"><ele>458.4</ele><time>2026-04-02T11:34:30Z</time></trkpt><trkpt lat="43.85202077785922" lon="2.895365774450551"><ele>458.2</ele><time>2026-04-02T11:34:31Z</time></trkpt><trkpt lat="43.85209282581416" lon="2.895235385942307"><ele>458.0</ele><time>2026-04-02T11:34:32Z</time></trkpt><trkpt lat="43.85218190037522" lon="2.8951035141378547"><ele>456.5</ele><time>2026-04-02T11:34:33Z</time></trkpt><trkpt lat="43.85229295127757" lon="2.89500936912096"><ele>455.0</ele><time>2026-04-02T11:34:34Z</time></trkpt><trkpt lat="43.85241483877866" lon="2.8949406798205493"><ele>453.5</ele><time>2026-04-02T11:34:35Z</time></trkpt><trkpt lat="43.852557032499384" lon="2.8949035296832917"><ele>452.0</ele><time>2026-04-02T11:34:36Z</time></trkpt><trkpt lat="43.85271354283243" lon="2.8948352483905517"><ele>452.0</ele><time>2026-04-02T11:34:37Z</time></trkpt><trkpt lat="43.852881113609094" lon="2.894792433491985"><ele>452.0</ele><time>2026-04-02T11:34:38Z</time></trkpt><trkpt lat="43.85304719311308" lon="2.8947388574214252"><ele>452.0</ele><time>2026-04-02T11:34:39Z</time></trkpt><trkpt lat="43.85321555954067" lon="2.894683075864216"><ele>452.0</ele><time>2026-04-02T11:34:40Z</time></trkpt><trkpt lat="43.85338413063554" lon="2.8946267291276757"><ele>452.0</ele><time>2026-04-02T11:34:41Z</time></trkpt><trkpt lat="43.85355413873324" lon="2.894562247274063"><ele>452.0</ele><time>2026-04-02T11:34:42Z</time></trkpt><trkpt lat="43.85372179409667" lon="2.894481353596347"><ele>452.66666666666663</ele><time>2026-04-02T11:34:43Z</time></trkpt><trkpt lat="43.85387709799967" lon="2.8943733286983786"><ele>453.33333333333337</ele><time>2026-04-02T11:34:44Z</time></trkpt><trkpt lat="43.854016494793676" lon="2.894257405019448"><ele>454.0</ele><time>2026-04-02T11:34:45Z</time></trkpt><trkpt lat="43.85414064860861" lon="2.894125646030961"><ele>452.33333333333337</ele><time>2026-04-02T11:34:46Z</time></trkpt><trkpt lat="43.854236740765884" lon="2.893938284670046"><ele>450.66666666666663</ele><time>2026-04-02T11:34:47Z</time></trkpt><trkpt lat="43.854272133980835" lon="2.893718116611483"><ele>449.0</ele><time>2026-04-02T11:34:48Z</time></trkpt><trkpt lat="43.8542858666542" lon="2.893479410802388"><ele>448.3333333333333</ele><time>2026-04-02T11:34:49Z</time></trkpt><trkpt lat="43.8543158269335" lon="2.8932450275265245"><ele>447.66666666666663</ele><time>2026-04-02T11:34:50Z</time></trkpt><trkpt lat="43.85439077543732" lon="2.8930531643187036"><ele>447.0</ele><time>2026-04-02T11:34:51Z</time></trkpt><trkpt lat="43.854454843238166" lon="2.892902297269572"><ele>447.0</ele><time>2026-04-02T11:34:52Z</time></trkpt><trkpt lat="43.85458321578595" lon="2.892880950514354"><ele>447.0</ele><time>2026-04-02T11:34:53Z</time></trkpt><trkpt lat="43.854721976003376" lon="2.8928579175726568"><ele>447.0</ele><time>2026-04-02T11:34:54Z</time></trkpt><trkpt lat="43.85488448441277" lon="2.892821735742594"><ele>447.0</ele><time>2026-04-02T11:34:55Z</time></trkpt><trkpt lat="43.85505945056291" lon="2.892778757399342"><ele>447.0</ele><time>2026-04-02T11:34:56Z</time></trkpt><trkpt lat="43.85523416824305" lon="2.8927162279740632"><ele>447.0</ele><time>2026-04-02T11:34:57Z</time></trkpt><trkpt lat="43.85540965078817" lon="2.892669748584509"><ele>447.0</ele><time>2026-04-02T11:34:58Z</time></trkpt><trkpt lat="43.855590499639646" lon="2.892621884576991"><ele>445.33333333333337</ele><time>2026-04-02T11:34:59Z</time></trkpt><trkpt lat="43.855765301975474" lon="2.8925791490916826"><ele>443.6666666666667</ele><time>2026-04-02T11:35:00Z</time></trkpt><trkpt lat="43.85594378434772" lon="2.892578258332597"><ele>442.0</ele><time>2026-04-02T11:35:01Z</time></trkpt><trkpt lat="43.85612393325956" lon="2.89257930847665"><ele>442.0</ele><time>2026-04-02T11:35:02Z</time></trkpt><trkpt lat="43.85630184918451" lon="2.892579308476141"><ele>442.0</ele><time>2026-04-02T11:35:03Z</time></trkpt><trkpt lat="43.85648432308374" lon="2.892559402801435"><ele>442.0</ele><time>2026-04-02T11:35:04Z</time></trkpt><trkpt lat="43.85666300967291" lon="2.8925578087141104"><ele>441.6666666666667</ele><time>2026-04-02T11:35:05Z</time></trkpt><trkpt lat="43.856837809305695" lon="2.892561386994009"><ele>441.33333333333337</ele><time>2026-04-02T11:35:06Z</time></trkpt><trkpt lat="43.8569916684995" lon="2.892567294081376"><ele>441.0</ele><time>2026-04-02T11:35:07Z</time></trkpt><trkpt lat="43.857113850422074" lon="2.8926219381099885"><ele>441.0</ele><time>2026-04-02T11:35:08Z</time></trkpt><trkpt lat="43.8572187410465" lon="2.892691122648069"><ele>441.0</ele><time>2026-04-02T11:35:09Z</time></trkpt><trkpt lat="43.857315080385725" lon="2.892814478489563"><ele>441.0</ele><time>2026-04-02T11:35:10Z</time></trkpt><trkpt lat="43.85741829661689" lon="2.892997692461555"><ele>441.0</ele><time>2026-04-02T11:35:11Z</time></trkpt><trkpt lat="43.85753448402202" lon="2.8932177001335093"><ele>439.66666666666663</ele><time>2026-04-02T11:35:12Z</time></trkpt><trkpt lat="43.85765637580931" lon="2.8934488505047873"><ele>438.3333333333333</ele><time>2026-04-02T11:35:13Z</time></trkpt><trkpt lat="43.85777031084657" lon="2.89365854337094"><ele>437.0</ele><time>2026-04-02T11:35:14Z</time></trkpt><trkpt lat="43.85787438694716" lon="2.893854867603256"><ele>437.0</ele><time>2026-04-02T11:35:15Z</time></trkpt><trkpt lat="43.857972701927686" lon="2.8940357429575747"><ele>437.0</ele><time>2026-04-02T11:35:16Z</time></trkpt><trkpt lat="43.858090640507754" lon="2.894195344711934"><ele>437.0</ele><time>2026-04-02T11:35:17Z</time></trkpt><trkpt lat="43.85821936476173" lon="2.8943350525153995"><ele>437.66666666666663</ele><time>2026-04-02T11:35:18Z</time></trkpt><trkpt lat="43.858391224514264" lon="2.8944331183689838"><ele>438.33333333333337</ele><time>2026-04-02T11:35:19Z</time></trkpt><trkpt lat="43.858593731533425" lon="2.894491822916464"><ele>439.0</ele><time>2026-04-02T11:35:20Z</time></trkpt><trkpt lat="43.858802179106156" lon="2.89456526857095"><ele>439.33333333333337</ele><time>2026-04-02T11:35:21Z</time></trkpt><trkpt lat="43.85901190744222" lon="2.894650267450232"><ele>439.66666666666663</ele><time>2026-04-02T11:35:22Z</time></trkpt><trkpt lat="43.85921774829458" lon="2.894734218918181"><ele>440.0</ele><time>2026-04-02T11:35:23Z</time></trkpt><trkpt lat="43.85941540058083" lon="2.894816057495431"><ele>440.0</ele><time>2026-04-02T11:35:24Z</time></trkpt><trkpt lat="43.859611993226096" lon="2.8949012141795563"><ele>440.0</ele><time>2026-04-02T11:35:25Z</time></trkpt><trkpt lat="43.8598213628821" lon="2.8950089166564847"><ele>440.0</ele><time>2026-04-02T11:35:26Z</time></trkpt><trkpt lat="43.86002896137195" lon="2.895095712727057"><ele>440.0</ele><time>2026-04-02T11:35:27Z</time></trkpt><trkpt lat="43.86022835155198" lon="2.895178095421229"><ele>440.0</ele><time>2026-04-02T11:35:28Z</time></trkpt><trkpt lat="43.86041932599127" lon="2.8952356232808656"><ele>440.0</ele><time>2026-04-02T11:35:29Z</time></trkpt><trkpt lat="43.86060550410092" lon="2.895310816710499"><ele>440.0</ele><time>2026-04-02T11:35:30Z</time></trkpt><trkpt lat="43.86078702351782" lon="2.895379423652976"><ele>440.0</ele><time>2026-04-02T11:35:31Z</time></trkpt><trkpt lat="43.86097238720644" lon="2.8954571703580427"><ele>440.0</ele><time>2026-04-02T11:35:32Z</time></trkpt><trkpt lat="43.86115494161823" lon="2.8955353860426416"><ele>439.0</ele><time>2026-04-02T11:35:33Z</time></trkpt><trkpt lat="43.86133190907492" lon="2.895609490299334"><ele>438.0</ele><time>2026-04-02T11:35:34Z</time></trkpt><trkpt lat="43.86150627010053" lon="2.895684539252019"><ele>437.0</ele><time>2026-04-02T11:35:35Z</time></trkpt><trkpt lat="43.861671293314316" lon="2.8957505279996814"><ele>436.66666666666663</ele><time>2026-04-02T11:35:36Z</time></trkpt><trkpt lat="43.86183673959062" lon="2.8958117520036852"><ele>436.33333333333337</ele><time>2026-04-02T11:35:37Z</time></trkpt><trkpt lat="43.86200075938277" lon="2.895872189236182"><ele>436.0</ele><time>2026-04-02T11:35:38Z</time></trkpt><trkpt lat="43.86218286431009" lon="2.8959471190869226"><ele>436.0</ele><time>2026-04-02T11:35:39Z</time></trkpt><trkpt lat="43.86236483363418" lon="2.8960258903310665"><ele>436.0</ele><time>2026-04-02T11:35:40Z</time></trkpt><trkpt lat="43.86254445202547" lon="2.896105425406199"><ele>436.0</ele><time>2026-04-02T11:35:41Z</time></trkpt><trkpt lat="43.86272380402316" lon="2.8961829539154063"><ele>433.33333333333337</ele><time>2026-04-02T11:35:42Z</time></trkpt><trkpt lat="43.862896657769944" lon="2.8962589474548124"><ele>430.66666666666663</ele><time>2026-04-02T11:35:43Z</time></trkpt><trkpt lat="43.86305905557701" lon="2.8963182061729595"><ele>428.0</ele><time>2026-04-02T11:35:44Z</time></trkpt><trkpt lat="43.863199164604204" lon="2.896347574243501"><ele>428.0</ele><time>2026-04-02T11:35:45Z</time></trkpt><trkpt lat="43.86334023024205" lon="2.896336628077389"><ele>428.0</ele><time>2026-04-02T11:35:46Z</time></trkpt><trkpt lat="43.863472721047124" lon="2.896287649049862"><ele>428.0</ele><time>2026-04-02T11:35:47Z</time></trkpt><trkpt lat="43.86361097747509" lon="2.8961954975761506"><ele>428.0</ele><time>2026-04-02T11:35:48Z</time></trkpt><trkpt lat="43.863766976959724" lon="2.8960520172306183"><ele>425.66666666666663</ele><time>2026-04-02T11:35:49Z</time></trkpt><trkpt lat="43.86394804362937" lon="2.8959283398063764"><ele>423.33333333333337</ele><time>2026-04-02T11:35:50Z</time></trkpt><trkpt lat="43.86409807715797" lon="2.895766359217896"><ele>421.0</ele><time>2026-04-02T11:35:51Z</time></trkpt><trkpt lat="43.864237156961984" lon="2.8955915885607824"><ele>420.33333333333337</ele><time>2026-04-02T11:35:52Z</time></trkpt><trkpt lat="43.86438411478902" lon="2.895389662356165"><ele>419.66666666666663</ele><time>2026-04-02T11:35:53Z</time></trkpt><trkpt lat="43.864534445210595" lon="2.895195242973256"><ele>419.0</ele><time>2026-04-02T11:35:54Z</time></trkpt><trkpt lat="43.86468953907861" lon="2.8950330083449325"><ele>419.0</ele><time>2026-04-02T11:35:55Z</time></trkpt><trkpt lat="43.86482513138102" lon="2.894841539676075"><ele>419.0</ele><time>2026-04-02T11:35:56Z</time></trkpt><trkpt lat="43.86496571048672" lon="2.8946789497268304"><ele>419.0</ele><time>2026-04-02T11:35:57Z</time></trkpt><trkpt lat="43.86510743885085" lon="2.894566215946193"><ele>417.0</ele><time>2026-04-02T11:35:58Z</time></trkpt><trkpt lat="43.8652623196836" lon="2.8944803857257817"><ele>415.0</ele><time>2026-04-02T11:35:59Z</time></trkpt><trkpt lat="43.86542445424336" lon="2.8944812104432325"><ele>413.0</ele><time>2026-04-02T11:36:00Z</time></trkpt><trkpt lat="43.86559717967371" lon="2.894514142590743"><ele>413.0</ele><time>2026-04-02T11:36:01Z</time></trkpt><trkpt lat="43.86577682873292" lon="2.8945969513003362"><ele>413.0</ele><time>2026-04-02T11:36:02Z</time></trkpt><trkpt lat="43.865950043115575" lon="2.8947215320484245"><ele>413.0</ele><time>2026-04-02T11:36:03Z</time></trkpt><trkpt lat="43.866111575971495" lon="2.8948710500240713"><ele>413.0</ele><time>2026-04-02T11:36:04Z</time></trkpt><trkpt lat="43.86624920594186" lon="2.8950474110235933"><ele>413.0</ele><time>2026-04-02T11:36:05Z</time></trkpt><trkpt lat="43.866362995909846" lon="2.895243046741426"><ele>413.0</ele><time>2026-04-02T11:36:06Z</time></trkpt><trkpt lat="43.8664640457465" lon="2.8954468702029126"><ele>412.25</ele><time>2026-04-02T11:36:07Z</time></trkpt><trkpt lat="43.866555078705446" lon="2.895627642292914"><ele>411.5</ele><time>2026-04-02T11:36:08Z</time></trkpt><trkpt lat="43.86665277801358" lon="2.8957675300490693"><ele>410.75</ele><time>2026-04-02T11:36:09Z</time></trkpt><trkpt lat="43.86673495992899" lon="2.8958978093188574"><ele>410.0</ele><time>2026-04-02T11:36:10Z</time></trkpt><trkpt lat="43.86681011457391" lon="2.89600357390443"><ele>413.25</ele><time>2026-04-02T11:36:11Z</time></trkpt><trkpt lat="43.86692423784926" lon="2.89600809494231"><ele>416.5</ele><time>2026-04-02T11:36:12Z</time></trkpt><trkpt lat="43.86703141271014" lon="2.896021670158485"><ele>419.75</ele><time>2026-04-02T11:36:13Z</time></trkpt><trkpt lat="43.867150023089266" lon="2.8959774386248496"><ele>423.0</ele><time>2026-04-02T11:36:14Z</time></trkpt><trkpt lat="43.86725950453866" lon="2.895930514512558"><ele>421.75</ele><time>2026-04-02T11:36:15Z</time></trkpt><trkpt lat="43.86735016008149" lon="2.895845270355289"><ele>420.5</ele><time>2026-04-02T11:36:16Z</time></trkpt><trkpt lat="43.86748406896988" lon="2.895759430312842"><ele>419.25</ele><time>2026-04-02T11:36:17Z</time></trkpt><trkpt lat="43.86763252288567" lon="2.89561267110752"><ele>418.0</ele><time>2026-04-02T11:36:18Z</time></trkpt><trkpt lat="43.86779192745783" lon="2.8954564707081203"><ele>418.0</ele><time>2026-04-02T11:36:19Z</time></trkpt><trkpt lat="43.8679450543086" lon="2.8953064203919814"><ele>418.0</ele><time>2026-04-02T11:36:20Z</time></trkpt><trkpt lat="43.86811776081361" lon="2.8951439185036394"><ele>418.0</ele><time>2026-04-02T11:36:21Z</time></trkpt><trkpt lat="43.86830548209542" lon="2.894964208551618"><ele>417.6666666666667</ele><time>2026-04-02T11:36:22Z</time></trkpt><trkpt lat="43.868476896207696" lon="2.894759082492382"><ele>417.33333333333337</ele><time>2026-04-02T11:36:23Z</time></trkpt><trkpt lat="43.86862346099463" lon="2.894571055761771"><ele>417.0</ele><time>2026-04-02T11:36:24Z</time></trkpt><trkpt lat="43.86873143050534" lon="2.8943468170399815"><ele>415.33333333333337</ele><time>2026-04-02T11:36:25Z</time></trkpt><trkpt lat="43.8688287996971" lon="2.894076861474525"><ele>413.6666666666667</ele><time>2026-04-02T11:36:26Z</time></trkpt><trkpt lat="43.868950714354675" lon="2.8938170019061347"><ele>412.0</ele><time>2026-04-02T11:36:27Z</time></trkpt><trkpt lat="43.86905613710313" lon="2.8935774365145357"><ele>411.0</ele><time>2026-04-02T11:36:28Z</time></trkpt><trkpt lat="43.86913538295623" lon="2.8933581173401084"><ele>410.0</ele><time>2026-04-02T11:36:29Z</time></trkpt><trkpt lat="43.86915036774216" lon="2.893160088224805"><ele>409.0</ele><time>2026-04-02T11:36:30Z</time></trkpt><trkpt lat="43.86913474056543" lon="2.893006305996743"><ele>408.0</ele><time>2026-04-02T11:36:31Z</time></trkpt><trkpt lat="43.869093672165576" lon="2.892906633254122"><ele>408.0</ele><time>2026-04-02T11:36:32Z</time></trkpt><trkpt lat="43.86904114627682" lon="2.8928046705655084"><ele>408.0</ele><time>2026-04-02T11:36:33Z</time></trkpt><trkpt lat="43.869013927751055" lon="2.892645137223021"><ele>408.0</ele><time>2026-04-02T11:36:34Z</time></trkpt><trkpt lat="43.86899140374148" lon="2.8924460152700964"><ele>408.0</ele><time>2026-04-02T11:36:35Z</time></trkpt><trkpt lat="43.868969034149885" lon="2.8922072991196273"><ele>407.66666666666663</ele><time>2026-04-02T11:36:36Z</time></trkpt><trkpt lat="43.86894653469108" lon="2.891951781150423"><ele>407.3333333333333</ele><time>2026-04-02T11:36:37Z</time></trkpt><trkpt lat="43.86892268148964" lon="2.8917310705079537"><ele>407.0</ele><time>2026-04-02T11:36:38Z</time></trkpt><trkpt lat="43.86896156729966" lon="2.8915422757616627"><ele>407.0</ele><time>2026-04-02T11:36:39Z</time></trkpt><trkpt lat="43.86902977156349" lon="2.891359403580701"><ele>407.0</ele><time>2026-04-02T11:36:40Z</time></trkpt><trkpt lat="43.8691502721147" lon="2.8911776627833237"><ele>407.0</ele><time>2026-04-02T11:36:41Z</time></trkpt><trkpt lat="43.86928938938772" lon="2.890965584023989"><ele>407.3333333333333</ele><time>2026-04-02T11:36:42Z</time></trkpt><trkpt lat="43.869426577378405" lon="2.8907298178924927"><ele>407.66666666666663</ele><time>2026-04-02T11:36:43Z</time></trkpt><trkpt lat="43.869565562963345" lon="2.890523088859092"><ele>408.0</ele><time>2026-04-02T11:36:44Z</time></trkpt><trkpt lat="43.8697168348726" lon="2.8903552240080534"><ele>408.0</ele><time>2026-04-02T11:36:45Z</time></trkpt><trkpt lat="43.86985545561318" lon="2.890210638264308"><ele>408.0</ele><time>2026-04-02T11:36:46Z</time></trkpt><trkpt lat="43.870012199798346" lon="2.8901004267113706"><ele>408.0</ele><time>2026-04-02T11:36:47Z</time></trkpt><trkpt lat="43.87018521638122" lon="2.8900031164811097"><ele>407.0</ele><time>2026-04-02T11:36:48Z</time></trkpt><trkpt lat="43.87035107094045" lon="2.8898990009243186"><ele>406.0</ele><time>2026-04-02T11:36:49Z</time></trkpt><trkpt lat="43.870528663783084" lon="2.889840076621597"><ele>405.0</ele><time>2026-04-02T11:36:50Z</time></trkpt><trkpt lat="43.87068265934399" lon="2.8897653593653048"><ele>405.0</ele><time>2026-04-02T11:36:51Z</time></trkpt><trkpt lat="43.87080726244424" lon="2.8896667367142435"><ele>405.0</ele><time>2026-04-02T11:36:52Z</time></trkpt><trkpt lat="43.8709135931876" lon="2.889552524577275"><ele>405.0</ele><time>2026-04-02T11:36:53Z</time></trkpt><trkpt lat="43.8709859818081" lon="2.8893762376109904"><ele>405.0</ele><time>2026-04-02T11:36:54Z</time></trkpt><trkpt lat="43.87101775375078" lon="2.8891459242731825"><ele>406.0</ele><time>2026-04-02T11:36:55Z</time></trkpt><trkpt lat="43.87101864267447" lon="2.888877716239972"><ele>407.0</ele><time>2026-04-02T11:36:56Z</time></trkpt><trkpt lat="43.871001516100584" lon="2.888591377198437"><ele>408.0</ele><time>2026-04-02T11:36:57Z</time></trkpt><trkpt lat="43.87101373599042" lon="2.8883054807836994"><ele>408.66666666666663</ele><time>2026-04-02T11:36:58Z</time></trkpt><trkpt lat="43.871013952740796" lon="2.8880199818389776"><ele>409.3333333333333</ele><time>2026-04-02T11:36:59Z</time></trkpt><trkpt lat="43.871014805428345" lon="2.8877506179901373"><ele>410.0</ele><time>2026-04-02T11:37:00Z</time></trkpt><trkpt lat="43.871016282595306" lon="2.887479785497987"><ele>410.3333333333333</ele><time>2026-04-02T11:37:01Z</time></trkpt><trkpt lat="43.871018755211345" lon="2.8872171026651086"><ele>410.66666666666663</ele><time>2026-04-02T11:37:02Z</time></trkpt><trkpt lat="43.87101123950672" lon="2.8869777909945604"><ele>411.0</ele><time>2026-04-02T11:37:03Z</time></trkpt><trkpt lat="43.87104900036178" lon="2.8867633017786485"><ele>411.0</ele><time>2026-04-02T11:37:04Z</time></trkpt><trkpt lat="43.87108999733676" lon="2.8865562820026267"><ele>411.0</ele><time>2026-04-02T11:37:05Z</time></trkpt><trkpt lat="43.87114584276569" lon="2.886347186331162"><ele>411.0</ele><time>2026-04-02T11:37:06Z</time></trkpt><trkpt lat="43.8712000030601" lon="2.8861189499706774"><ele>409.66666666666663</ele><time>2026-04-02T11:37:07Z</time></trkpt><trkpt lat="43.871270589977044" lon="2.8858920467129243"><ele>408.3333333333333</ele><time>2026-04-02T11:37:08Z</time></trkpt><trkpt lat="43.87133610559547" lon="2.8856677124797483"><ele>407.0</ele><time>2026-04-02T11:37:09Z</time></trkpt><trkpt lat="43.87139855460937" lon="2.8854410615064876"><ele>407.0</ele><time>2026-04-02T11:37:10Z</time></trkpt><trkpt lat="43.87145976271931" lon="2.885219130738664"><ele>407.0</ele><time>2026-04-02T11:37:11Z</time></trkpt><trkpt lat="43.871527038838266" lon="2.8849957014801273"><ele>407.0</ele><time>2026-04-02T11:37:12Z</time></trkpt><trkpt lat="43.87159836682477" lon="2.8847715054160084"><ele>405.3333333333333</ele><time>2026-04-02T11:37:13Z</time></trkpt><trkpt lat="43.871660006806664" lon="2.8845422824790945"><ele>403.66666666666663</ele><time>2026-04-02T11:37:14Z</time></trkpt><trkpt lat="43.871729650799324" lon="2.884291068987821"><ele>402.0</ele><time>2026-04-02T11:37:15Z</time></trkpt><trkpt lat="43.87184516953183" lon="2.8840531575964112"><ele>402.0</ele><time>2026-04-02T11:37:16Z</time></trkpt><trkpt lat="43.87197796120063" lon="2.8838146286921447"><ele>402.0</ele><time>2026-04-02T11:37:17Z</time></trkpt><trkpt lat="43.872116772056735" lon="2.883566664927171"><ele>402.0</ele><time>2026-04-02T11:37:18Z</time></trkpt><trkpt lat="43.87226128076771" lon="2.8833068378300597"><ele>399.5</ele><time>2026-04-02T11:37:19Z</time></trkpt><trkpt lat="43.87239194084221" lon="2.8830350043581894"><ele>397.0</ele><time>2026-04-02T11:37:20Z</time></trkpt><trkpt lat="43.87253551207035" lon="2.8827787605633257"><ele>394.5</ele><time>2026-04-02T11:37:21Z</time></trkpt><trkpt lat="43.87267660150457" lon="2.8825284703417466"><ele>392.0</ele><time>2026-04-02T11:37:22Z</time></trkpt><trkpt lat="43.87281970892703" lon="2.882271783577515"><ele>392.0</ele><time>2026-04-02T11:37:23Z</time></trkpt><trkpt lat="43.87295752192254" lon="2.882023075271784"><ele>392.0</ele><time>2026-04-02T11:37:24Z</time></trkpt><trkpt lat="43.873118188686966" lon="2.881771257093764"><ele>391.5</ele><time>2026-04-02T11:37:25Z</time></trkpt><trkpt lat="43.87325917511584" lon="2.8814877424993743"><ele>391.0</ele><time>2026-04-02T11:37:26Z</time></trkpt><trkpt lat="43.87341441923677" lon="2.881221153616286"><ele>394.5</ele><time>2026-04-02T11:37:27Z</time></trkpt><trkpt lat="43.873552829340596" lon="2.880972715364052"><ele>398.0</ele><time>2026-04-02T11:37:28Z</time></trkpt><trkpt lat="43.873704208196905" lon="2.8807336184868477"><ele>398.5</ele><time>2026-04-02T11:37:29Z</time></trkpt><trkpt lat="43.87384439674826" lon="2.880481236553115"><ele>399.0</ele><time>2026-04-02T11:37:30Z</time></trkpt><trkpt lat="43.87398109145656" lon="2.8802300504511944"><ele>397.33333333333337</ele><time>2026-04-02T11:37:31Z</time></trkpt><trkpt lat="43.87411729361341" lon="2.8799932510658826"><ele>395.6666666666667</ele><time>2026-04-02T11:37:32Z</time></trkpt><trkpt lat="43.874252789024325" lon="2.8797476363652628"><ele>394.0</ele><time>2026-04-02T11:37:33Z</time></trkpt><trkpt lat="43.874377760179385" lon="2.879526682085237"><ele>396.6666666666667</ele><time>2026-04-02T11:37:34Z</time></trkpt><trkpt lat="43.874481031527495" lon="2.8793017866170505"><ele>399.33333333333337</ele><time>2026-04-02T11:37:35Z</time></trkpt><trkpt lat="43.87458179192399" lon="2.8790906247920307"><ele>402.0</ele><time>2026-04-02T11:37:36Z</time></trkpt><trkpt lat="43.87466424762644" lon="2.878869604792676"><ele>402.0</ele><time>2026-04-02T11:37:37Z</time></trkpt><trkpt lat="43.87470923137164" lon="2.8786442433478774"><ele>402.0</ele><time>2026-04-02T11:37:38Z</time></trkpt><trkpt lat="43.874727139042655" lon="2.878397756331599"><ele>402.0</ele><time>2026-04-02T11:37:39Z</time></trkpt><trkpt lat="43.87472936990341" lon="2.8781185548189567"><ele>401.66666666666663</ele><time>2026-04-02T11:37:40Z</time></trkpt><trkpt lat="43.874727902967315" lon="2.877825116513383"><ele>401.3333333333333</ele><time>2026-04-02T11:37:41Z</time></trkpt><trkpt lat="43.87472292299111" lon="2.8775277878423915"><ele>401.0</ele><time>2026-04-02T11:37:42Z</time></trkpt><trkpt lat="43.87471652182092" lon="2.8772366185441385"><ele>400.3333333333333</ele><time>2026-04-02T11:37:43Z</time></trkpt><trkpt lat="43.874714709144854" lon="2.8769625724197856"><ele>399.66666666666663</ele><time>2026-04-02T11:37:44Z</time></trkpt><trkpt lat="43.87471844724108" lon="2.8766990734446374"><ele>399.0</ele><time>2026-04-02T11:37:45Z</time></trkpt><trkpt lat="43.8747211977975" lon="2.876448698932398"><ele>397.66666666666663</ele><time>2026-04-02T11:37:46Z</time></trkpt><trkpt lat="43.87472127237076" lon="2.876221198006477"><ele>396.3333333333333</ele><time>2026-04-02T11:37:47Z</time></trkpt><trkpt lat="43.87472479124464" lon="2.875997098663778"><ele>395.0</ele><time>2026-04-02T11:37:48Z</time></trkpt><trkpt lat="43.87473523743219" lon="2.87578567262438"><ele>394.25</ele><time>2026-04-02T11:37:49Z</time></trkpt><trkpt lat="43.87476707949518" lon="2.875591878310915"><ele>393.5</ele><time>2026-04-02T11:37:50Z</time></trkpt><trkpt lat="43.87483438723045" lon="2.8754110166257965"><ele>392.75</ele><time>2026-04-02T11:37:51Z</time></trkpt><trkpt lat="43.87488324879715" lon="2.8752132220691866"><ele>392.0</ele><time>2026-04-02T11:37:52Z</time></trkpt><trkpt lat="43.87496132627863" lon="2.8750309807167507"><ele>390.5</ele><time>2026-04-02T11:37:53Z</time></trkpt><trkpt lat="43.87505908775328" lon="2.874881351335691"><ele>389.0</ele><time>2026-04-02T11:37:54Z</time></trkpt><trkpt lat="43.875161006396596" lon="2.8747626476109205"><ele>387.5</ele><time>2026-04-02T11:37:55Z</time></trkpt><trkpt lat="43.87529681986957" lon="2.8746816967098567"><ele>386.0</ele><time>2026-04-02T11:37:56Z</time></trkpt><trkpt lat="43.875471060629174" lon="2.874618337918617"><ele>386.0</ele><time>2026-04-02T11:37:57Z</time></trkpt><trkpt lat="43.875653910785985" lon="2.8745664782321696"><ele>386.0</ele><time>2026-04-02T11:37:58Z</time></trkpt><trkpt lat="43.87584669619035" lon="2.8744876642777824"><ele>386.0</ele><time>2026-04-02T11:37:59Z</time></trkpt><trkpt lat="43.87605950353274" lon="2.874418660235515"><ele>386.3333333333333</ele><time>2026-04-02T11:38:00Z</time></trkpt><trkpt lat="43.87627654515583" lon="2.874368582155427"><ele>386.66666666666663</ele><time>2026-04-02T11:38:01Z</time></trkpt><trkpt lat="43.87646002566589" lon="2.8742802336639217"><ele>387.0</ele><time>2026-04-02T11:38:02Z</time></trkpt><trkpt lat="43.87660869376948" lon="2.874205713513167"><ele>386.0</ele><time>2026-04-02T11:38:03Z</time></trkpt><trkpt lat="43.87674619197306" lon="2.874076581207537"><ele>385.0</ele><time>2026-04-02T11:38:04Z</time></trkpt><trkpt lat="43.876873236614266" lon="2.873882904010415"><ele>384.0</ele><time>2026-04-02T11:38:05Z</time></trkpt><trkpt lat="43.87698390876409" lon="2.87364083092216"><ele>383.3333333333333</ele><time>2026-04-02T11:38:06Z</time></trkpt><trkpt lat="43.87707697106851" lon="2.8733700622757423"><ele>382.66666666666663</ele><time>2026-04-02T11:38:07Z</time></trkpt><trkpt lat="43.87718506121599" lon="2.873092108746667"><ele>382.0</ele><time>2026-04-02T11:38:08Z</time></trkpt><trkpt lat="43.87729568885105" lon="2.872793202320817"><ele>381.5</ele><time>2026-04-02T11:38:09Z</time></trkpt><trkpt lat="43.87739928128158" lon="2.8724637307290295"><ele>381.0</ele><time>2026-04-02T11:38:10Z</time></trkpt><trkpt lat="43.877515333880204" lon="2.872160178003994"><ele>382.5</ele><time>2026-04-02T11:38:11Z</time></trkpt><trkpt lat="43.87762473917803" lon="2.87186067907042"><ele>384.0</ele><time>2026-04-02T11:38:12Z</time></trkpt><trkpt lat="43.87771962792889" lon="2.871566195016997"><ele>384.0</ele><time>2026-04-02T11:38:13Z</time></trkpt><trkpt lat="43.877769338184514" lon="2.8712746703632868"><ele>384.0</ele><time>2026-04-02T11:38:14Z</time></trkpt><trkpt lat="43.87780135387822" lon="2.8709452625387994"><ele>383.0</ele><time>2026-04-02T11:38:15Z</time></trkpt><trkpt lat="43.87781458315009" lon="2.8706153910164964"><ele>382.0</ele><time>2026-04-02T11:38:16Z</time></trkpt><trkpt lat="43.877810672118414" lon="2.8703259789334874"><ele>381.0</ele><time>2026-04-02T11:38:17Z</time></trkpt><trkpt lat="43.8777931183001" lon="2.8700351533557455"><ele>380.3333333333333</ele><time>2026-04-02T11:38:18Z</time></trkpt><trkpt lat="43.877783925711014" lon="2.86977616603092"><ele>379.66666666666663</ele><time>2026-04-02T11:38:19Z</time></trkpt><trkpt lat="43.877798234108276" lon="2.869536424365951"><ele>379.0</ele><time>2026-04-02T11:38:20Z</time></trkpt><trkpt lat="43.87788254919421" lon="2.869352268562186"><ele>378.66666666666663</ele><time>2026-04-02T11:38:21Z</time></trkpt><trkpt lat="43.87798655367156" lon="2.8691788800267557"><ele>378.3333333333333</ele><time>2026-04-02T11:38:22Z</time></trkpt><trkpt lat="43.878130444309384" lon="2.8690161346681164"><ele>378.0</ele><time>2026-04-02T11:38:23Z</time></trkpt><trkpt lat="43.87829226223058" lon="2.868848774956163"><ele>378.0</ele><time>2026-04-02T11:38:24Z</time></trkpt><trkpt lat="43.87845033410857" lon="2.8686670349605663"><ele>378.0</ele><time>2026-04-02T11:38:25Z</time></trkpt><trkpt lat="43.87860816149565" lon="2.868496287030946"><ele>378.0</ele><time>2026-04-02T11:38:26Z</time></trkpt><trkpt lat="43.87874034045389" lon="2.8682918525076677"><ele>378.0</ele><time>2026-04-02T11:38:27Z</time></trkpt><trkpt lat="43.87884420528404" lon="2.868051706956449"><ele>378.0</ele><time>2026-04-02T11:38:28Z</time></trkpt><trkpt lat="43.878936417110076" lon="2.8677604791404803"><ele>378.0</ele><time>2026-04-02T11:38:29Z</time></trkpt><trkpt lat="43.879027056749685" lon="2.867446741748532"><ele>377.0</ele><time>2026-04-02T11:38:30Z</time></trkpt><trkpt lat="43.87913056129194" lon="2.867118860578695"><ele>376.0</ele><time>2026-04-02T11:38:31Z</time></trkpt><trkpt lat="43.87924013886131" lon="2.8667783829085978"><ele>376.0</ele><time>2026-04-02T11:38:32Z</time></trkpt><trkpt lat="43.879348010868746" lon="2.8664485107508093"><ele>376.0</ele><time>2026-04-02T11:38:33Z</time></trkpt><trkpt lat="43.87945362505407" lon="2.8661252714144902"><ele>374.5</ele><time>2026-04-02T11:38:34Z</time></trkpt><trkpt lat="43.87956102841457" lon="2.865810243934138"><ele>373.0</ele><time>2026-04-02T11:38:35Z</time></trkpt><trkpt lat="43.87966371686395" lon="2.8655020059677843"><ele>373.0</ele><time>2026-04-02T11:38:36Z</time></trkpt><trkpt lat="43.87976540398403" lon="2.865196442295439"><ele>373.0</ele><time>2026-04-02T11:38:37Z</time></trkpt><trkpt lat="43.87986686087644" lon="2.8648879354236185"><ele>371.0</ele><time>2026-04-02T11:38:38Z</time></trkpt><trkpt lat="43.88006220267659" lon="2.864310290005184"><ele>371.6666666666667</ele><time>2026-04-02T11:38:40Z</time></trkpt><trkpt lat="43.88014697389782" lon="2.8640547403696486"><ele>372.3333333333333</ele><time>2026-04-02T11:38:41Z</time></trkpt><trkpt lat="43.88022912595303" lon="2.8637972454984157"><ele>373.0</ele><time>2026-04-02T11:38:42Z</time></trkpt><trkpt lat="43.880309666376284" lon="2.8635475280220013"><ele>372.0</ele><time>2026-04-02T11:38:43Z</time></trkpt><trkpt lat="43.88039600940642" lon="2.863293517441082"><ele>371.0</ele><time>2026-04-02T11:38:44Z</time></trkpt><trkpt lat="43.88047797645981" lon="2.8630714141673863"><ele>370.0</ele><time>2026-04-02T11:38:45Z</time></trkpt><trkpt lat="43.88056441043179" lon="2.86287722781149"><ele>370.0</ele><time>2026-04-02T11:38:46Z</time></trkpt><trkpt lat="43.88067952926162" lon="2.862745673985409"><ele>370.0</ele><time>2026-04-02T11:38:47Z</time></trkpt><trkpt lat="43.88080415715695" lon="2.8626590238593863"><ele>370.0</ele><time>2026-04-02T11:38:48Z</time></trkpt><trkpt lat="43.88094787595261" lon="2.8625594826442113"><ele>370.0</ele><time>2026-04-02T11:38:49Z</time></trkpt><trkpt lat="43.88109659924485" lon="2.862446732490909"><ele>370.0</ele><time>2026-04-02T11:38:50Z</time></trkpt><trkpt lat="43.881257864791635" lon="2.862365282542484"><ele>370.0</ele><time>2026-04-02T11:38:51Z</time></trkpt><trkpt lat="43.88143290598339" lon="2.8622650997950814"><ele>370.0</ele><time>2026-04-02T11:38:52Z</time></trkpt><trkpt lat="43.8815912524017" lon="2.8621663282320027"><ele>370.0</ele><time>2026-04-02T11:38:53Z</time></trkpt><trkpt lat="43.88172042079431" lon="2.862070655620552"><ele>370.0</ele><time>2026-04-02T11:38:54Z</time></trkpt><trkpt lat="43.881802283169215" lon="2.861958413937436"><ele>370.0</ele><time>2026-04-02T11:38:55Z</time></trkpt><trkpt lat="43.881845837069264" lon="2.861871578656455"><ele>370.0</ele><time>2026-04-02T11:38:56Z</time></trkpt><trkpt lat="43.881916568665645" lon="2.861893555103619"><ele>370.0</ele><time>2026-04-02T11:38:58Z</time></trkpt><trkpt lat="43.88193686235918" lon="2.8620504440438657"><ele>372.0</ele><time>2026-04-02T11:39:00Z</time></trkpt><trkpt lat="43.88198629051405" lon="2.862166755376227"><ele>374.0</ele><time>2026-04-02T11:39:01Z</time></trkpt><trkpt lat="43.88203290754094" lon="2.8623329212376425"><ele>376.0</ele><time>2026-04-02T11:39:02Z</time></trkpt><trkpt lat="43.88209815176346" lon="2.8625455120555237"><ele>378.0</ele><time>2026-04-02T11:39:03Z</time></trkpt><trkpt lat="43.88218398033341" lon="2.862793268773663"><ele>378.3333333333333</ele><time>2026-04-02T11:39:04Z</time></trkpt><trkpt lat="43.882256546257025" lon="2.863068111668835"><ele>378.66666666666663</ele><time>2026-04-02T11:39:05Z</time></trkpt><trkpt lat="43.882349276943295" lon="2.8633609426584576"><ele>379.0</ele><time>2026-04-02T11:39:06Z</time></trkpt><trkpt lat="43.882442590801595" lon="2.8636556152257344"><ele>379.5</ele><time>2026-04-02T11:39:07Z</time></trkpt><trkpt lat="43.88255106237562" lon="2.8639423735487233"><ele>380.0</ele><time>2026-04-02T11:39:08Z</time></trkpt><trkpt lat="43.88264645283786" lon="2.8642387384059043"><ele>385.0</ele><time>2026-04-02T11:39:09Z</time></trkpt><trkpt lat="43.88274989956389" lon="2.864554137663687"><ele>390.0</ele><time>2026-04-02T11:39:10Z</time></trkpt><trkpt lat="43.88285841521592" lon="2.8649000333836137"><ele>391.5</ele><time>2026-04-02T11:39:11Z</time></trkpt><trkpt lat="43.88297726744393" lon="2.8652681682484054"><ele>393.0</ele><time>2026-04-02T11:39:12Z</time></trkpt><trkpt lat="43.883098557849735" lon="2.8656357623749433"><ele>394.5</ele><time>2026-04-02T11:39:13Z</time></trkpt><trkpt lat="43.88320640073714" lon="2.865973568419743"><ele>396.0</ele><time>2026-04-02T11:39:14Z</time></trkpt><trkpt lat="43.88331634413402" lon="2.8663227815913666"><ele>396.0</ele><time>2026-04-02T11:39:15Z</time></trkpt><trkpt lat="43.88342001486177" lon="2.866654590638887"><ele>396.0</ele><time>2026-04-02T11:39:16Z</time></trkpt><trkpt lat="43.88351387950783" lon="2.866962372518891"><ele>400.0</ele><time>2026-04-02T11:39:17Z</time></trkpt><trkpt lat="43.88360625880873" lon="2.8672550085413873"><ele>404.0</ele><time>2026-04-02T11:39:18Z</time></trkpt><trkpt lat="43.88368832711288" lon="2.867550601793549"><ele>405.66666666666663</ele><time>2026-04-02T11:39:19Z</time></trkpt><trkpt lat="43.88377848107867" lon="2.8678351502064525"><ele>407.33333333333337</ele><time>2026-04-02T11:39:20Z</time></trkpt><trkpt lat="43.88388088162112" lon="2.8681014218137015"><ele>409.0</ele><time>2026-04-02T11:39:21Z</time></trkpt><trkpt lat="43.88396036456099" lon="2.86835979743611"><ele>408.6666666666667</ele><time>2026-04-02T11:39:22Z</time></trkpt><trkpt lat="43.884042390515496" lon="2.868616358614131"><ele>408.33333333333337</ele><time>2026-04-02T11:39:23Z</time></trkpt><trkpt lat="43.88410791748009" lon="2.8688728644078845"><ele>408.0</ele><time>2026-04-02T11:39:24Z</time></trkpt><trkpt lat="43.884186788411625" lon="2.8691211113730386"><ele>410.0</ele><time>2026-04-02T11:39:25Z</time></trkpt><trkpt lat="43.88426829833146" lon="2.869377664702275"><ele>412.0</ele><time>2026-04-02T11:39:26Z</time></trkpt><trkpt lat="43.88435638237838" lon="2.8696499406605143"><ele>414.0</ele><time>2026-04-02T11:39:27Z</time></trkpt><trkpt lat="43.88444755458956" lon="2.8699302847684964"><ele>415.66666666666663</ele><time>2026-04-02T11:39:28Z</time></trkpt><trkpt lat="43.884539979173205" lon="2.870214781514507"><ele>417.3333333333333</ele><time>2026-04-02T11:39:29Z</time></trkpt><trkpt lat="43.88464167368009" lon="2.870473640622687"><ele>419.0</ele><time>2026-04-02T11:39:30Z</time></trkpt><trkpt lat="43.88471153111654" lon="2.870747129377236"><ele>422.3333333333333</ele><time>2026-04-02T11:39:31Z</time></trkpt><trkpt lat="43.8847990011625" lon="2.871020056034713"><ele>425.66666666666663</ele><time>2026-04-02T11:39:32Z</time></trkpt><trkpt lat="43.88488709257333" lon="2.8712949215379076"><ele>429.0</ele><time>2026-04-02T11:39:33Z</time></trkpt><trkpt lat="43.88497067213957" lon="2.8715557088793244"><ele>430.0</ele><time>2026-04-02T11:39:34Z</time></trkpt><trkpt lat="43.885054770885255" lon="2.8718192281972468"><ele>431.0</ele><time>2026-04-02T11:39:35Z</time></trkpt><trkpt lat="43.885132212297336" lon="2.8720703763007474"><ele>432.0</ele><time>2026-04-02T11:39:36Z</time></trkpt><trkpt lat="43.88522187563451" lon="2.8723049537868275"><ele>432.0</ele><time>2026-04-02T11:39:37Z</time></trkpt><trkpt lat="43.885278357195425" lon="2.8725315620199563"><ele>432.0</ele><time>2026-04-02T11:39:38Z</time></trkpt><trkpt lat="43.88535321089313" lon="2.872672659611321"><ele>432.0</ele><time>2026-04-02T11:39:39Z</time></trkpt><trkpt lat="43.88541684265264" lon="2.872805524625807"><ele>432.0</ele><time>2026-04-02T11:39:40Z</time></trkpt><trkpt lat="43.88549943985908" lon="2.872918557033944"><ele>432.33333333333337</ele><time>2026-04-02T11:39:41Z</time></trkpt><trkpt lat="43.88560538404318" lon="2.8730258326389704"><ele>432.6666666666667</ele><time>2026-04-02T11:39:42Z</time></trkpt><trkpt lat="43.88573644594345" lon="2.873145194237108"><ele>433.0</ele><time>2026-04-02T11:39:43Z</time></trkpt><trkpt lat="43.88587895792131" lon="2.8732731365486757"><ele>434.6666666666667</ele><time>2026-04-02T11:39:44Z</time></trkpt><trkpt lat="43.88601349280698" lon="2.8734196351998844"><ele>436.33333333333337</ele><time>2026-04-02T11:39:45Z</time></trkpt><trkpt lat="43.88612365168081" lon="2.8736242665354337"><ele>438.0</ele><time>2026-04-02T11:39:46Z</time></trkpt><trkpt lat="43.88623531643598" lon="2.873843451988252"><ele>438.66666666666663</ele><time>2026-04-02T11:39:47Z</time></trkpt><trkpt lat="43.88634401091707" lon="2.8740882897790296"><ele>439.3333333333333</ele><time>2026-04-02T11:39:48Z</time></trkpt><trkpt lat="43.886450530121564" lon="2.8743181005318914"><ele>440.0</ele><time>2026-04-02T11:39:49Z</time></trkpt><trkpt lat="43.886564382783064" lon="2.874531488092719"><ele>440.3333333333333</ele><time>2026-04-02T11:39:50Z</time></trkpt><trkpt lat="43.88666238687748" lon="2.8747419200411013"><ele>440.66666666666663</ele><time>2026-04-02T11:39:51Z</time></trkpt><trkpt lat="43.886733479525404" lon="2.8749495969875327"><ele>441.0</ele><time>2026-04-02T11:39:52Z</time></trkpt><trkpt lat="43.886796474902766" lon="2.875158762637864"><ele>444.33333333333337</ele><time>2026-04-02T11:39:53Z</time></trkpt><trkpt lat="43.88685686657231" lon="2.875397889191968"><ele>447.6666666666667</ele><time>2026-04-02T11:39:54Z</time></trkpt><trkpt lat="43.88692821919572" lon="2.8756282396423924"><ele>451.0</ele><time>2026-04-02T11:39:55Z</time></trkpt><trkpt lat="43.88697486772247" lon="2.875843981177494"><ele>453.8</ele><time>2026-04-02T11:39:56Z</time></trkpt><trkpt lat="43.8870180410961" lon="2.8760199246917866"><ele>456.6</ele><time>2026-04-02T11:39:57Z</time></trkpt><trkpt lat="43.887055585955636" lon="2.8761735974279534"><ele>459.4</ele><time>2026-04-02T11:39:58Z</time></trkpt><trkpt lat="43.88708580732501" lon="2.876308710238074"><ele>462.2</ele><time>2026-04-02T11:39:59Z</time></trkpt><trkpt lat="43.887107104386196" lon="2.8764291625543184"><ele>465.0</ele><time>2026-04-02T11:40:00Z</time></trkpt><trkpt lat="43.88709245303663" lon="2.876559609486792"><ele>465.0</ele><time>2026-04-02T11:40:01Z</time></trkpt><trkpt lat="43.887015865399" lon="2.876664835948421"><ele>465.0</ele><time>2026-04-02T11:40:02Z</time></trkpt><trkpt lat="43.88691855453267" lon="2.876704882237482"><ele>465.0</ele><time>2026-04-02T11:40:03Z</time></trkpt><trkpt lat="43.88680067469854" lon="2.876739031092989"><ele>465.0</ele><time>2026-04-02T11:40:04Z</time></trkpt><trkpt lat="43.88664809586993" lon="2.8767617544883723"><ele>465.0</ele><time>2026-04-02T11:40:05Z</time></trkpt><trkpt lat="43.88649382139879" lon="2.8767468745390232"><ele>465.0</ele><time>2026-04-02T11:40:06Z</time></trkpt><trkpt lat="43.88637483607919" lon="2.8767456757267995"><ele>465.0</ele><time>2026-04-02T11:40:07Z</time></trkpt><trkpt lat="43.886266062597116" lon="2.876749327940522"><ele>465.0</ele><time>2026-04-02T11:40:08Z</time></trkpt><trkpt lat="43.88616142020468" lon="2.876812860586782"><ele>469.25</ele><time>2026-04-02T11:40:09Z</time></trkpt><trkpt lat="43.886068199425736" lon="2.8769400240476695"><ele>473.5</ele><time>2026-04-02T11:40:10Z</time></trkpt><trkpt lat="43.88600456516616" lon="2.877131708360632"><ele>477.75</ele><time>2026-04-02T11:40:11Z</time></trkpt><trkpt lat="43.885976392703384" lon="2.8773407306387604"><ele>482.0</ele><time>2026-04-02T11:40:12Z</time></trkpt><trkpt lat="43.88596405878927" lon="2.877579004361677"><ele>485.0</ele><time>2026-04-02T11:40:13Z</time></trkpt><trkpt lat="43.88590529180375" lon="2.8777958557148366"><ele>488.0</ele><time>2026-04-02T11:40:14Z</time></trkpt><trkpt lat="43.88578956883874" lon="2.877953716975815"><ele>491.0</ele><time>2026-04-02T11:40:15Z</time></trkpt><trkpt lat="43.88563985484573" lon="2.878081894922452"><ele>491.0</ele><time>2026-04-02T11:40:16Z</time></trkpt><trkpt lat="43.885452773059036" lon="2.878221117952838"><ele>491.0</ele><time>2026-04-02T11:40:17Z</time></trkpt><trkpt lat="43.88526695242191" lon="2.8783953371100783"><ele>491.0</ele><time>2026-04-02T11:40:18Z</time></trkpt><trkpt lat="43.885087633962776" lon="2.878564661176054"><ele>495.0</ele><time>2026-04-02T11:40:19Z</time></trkpt><trkpt lat="43.88494589106853" lon="2.878774255552881"><ele>499.0</ele><time>2026-04-02T11:40:20Z</time></trkpt><trkpt lat="43.884806715867214" lon="2.8789542760150013"><ele>503.0</ele><time>2026-04-02T11:40:21Z</time></trkpt><trkpt lat="43.88469601003138" lon="2.8791654768017065"><ele>510.0</ele><time>2026-04-02T11:40:22Z</time></trkpt><trkpt lat="43.88458259577192" lon="2.8793832211703463"><ele>517.0</ele><time>2026-04-02T11:40:23Z</time></trkpt><trkpt lat="43.88447277296696" lon="2.879623332863105"><ele>524.0</ele><time>2026-04-02T11:40:24Z</time></trkpt><trkpt lat="43.88439007913221" lon="2.879832542746608"><ele>524.0</ele><time>2026-04-02T11:40:25Z</time></trkpt><trkpt lat="43.88433363124633" lon="2.8799984718655574"><ele>524.0</ele><time>2026-04-02T11:40:26Z</time></trkpt><trkpt lat="43.88430480860988" lon="2.8801313404050446"><ele>524.0</ele><time>2026-04-02T11:40:27Z</time></trkpt><trkpt lat="43.88429742517345" lon="2.880235617883182"><ele>524.0</ele><time>2026-04-02T11:40:28Z</time></trkpt><trkpt lat="43.88438520177611" lon="2.880310771269592"><ele>524.0</ele><time>2026-04-02T11:40:29Z</time></trkpt><trkpt lat="43.8844606094752" lon="2.880314148099182"><ele>524.0</ele><time>2026-04-02T11:40:30Z</time></trkpt><trkpt lat="43.88453470670284" lon="2.8802656042116084"><ele>524.0</ele><time>2026-04-02T11:40:31Z</time></trkpt><trkpt lat="43.884582070111286" lon="2.880154538933682"><ele>524.0</ele><time>2026-04-02T11:40:32Z</time></trkpt><trkpt lat="43.88459523974369" lon="2.8800227979607156"><ele>524.0</ele><time>2026-04-02T11:40:33Z</time></trkpt><trkpt lat="43.88462395083911" lon="2.879883479238159"><ele>524.0</ele><time>2026-04-02T11:40:35Z</time></trkpt><trkpt lat="43.88465598305468" lon="2.87972608421704"><ele>524.0</ele><time>2026-04-02T11:46:11Z</time></trkpt><trkpt lat="43.88471918948012" lon="2.8796384840256852"><ele>524.0</ele><time>2026-04-02T11:46:12Z</time></trkpt><trkpt lat="43.884794975358375" lon="2.8795470123030347"><ele>524.0</ele><time>2026-04-02T11:46:13Z</time></trkpt><trkpt lat="43.88488908922144" lon="2.879441758053453"><ele>524.0</ele><time>2026-04-02T11:46:14Z</time></trkpt><trkpt lat="43.88499982941068" lon="2.8793726969247384"><ele>524.0</ele><time>2026-04-02T11:46:15Z</time></trkpt><trkpt lat="43.88511401041814" lon="2.8793073927421835"><ele>523.5</ele><time>2026-04-02T11:46:16Z</time></trkpt><trkpt lat="43.88523160494824" lon="2.87922714118937"><ele>523.0</ele><time>2026-04-02T11:46:17Z</time></trkpt><trkpt lat="43.88535982562825" lon="2.8791707148683563"><ele>522.5</ele><time>2026-04-02T11:46:18Z</time></trkpt><trkpt lat="43.885495323387595" lon="2.8791368468539718"><ele>522.0</ele><time>2026-04-02T11:46:19Z</time></trkpt><trkpt lat="43.88564373131378" lon="2.8790909247296064"><ele>522.0</ele><time>2026-04-02T11:46:20Z</time></trkpt><trkpt lat="43.885819303863094" lon="2.8790571949435617"><ele>522.0</ele><time>2026-04-02T11:46:21Z</time></trkpt><trkpt lat="43.886005088203895" lon="2.8790173284568574"><ele>522.0</ele><time>2026-04-02T11:46:22Z</time></trkpt><trkpt lat="43.8861624640433" lon="2.879046561758496"><ele>523.0</ele><time>2026-04-02T11:46:23Z</time></trkpt><trkpt lat="43.88631683523907" lon="2.879048412910013"><ele>524.0</ele><time>2026-04-02T11:46:24Z</time></trkpt><trkpt lat="43.886460318755425" lon="2.879090789396431"><ele>525.0</ele><time>2026-04-02T11:46:25Z</time></trkpt><trkpt lat="43.886604672218496" lon="2.8791550010628906"><ele>525.0</ele><time>2026-04-02T11:46:26Z</time></trkpt><trkpt lat="43.88675136392586" lon="2.879260072638836"><ele>525.0</ele><time>2026-04-02T11:46:27Z</time></trkpt><trkpt lat="43.88690679395108" lon="2.879357687630758"><ele>525.0</ele><time>2026-04-02T11:46:28Z</time></trkpt><trkpt lat="43.88707426299522" lon="2.879443234619365"><ele>528.3333333333334</ele><time>2026-04-02T11:46:29Z</time></trkpt><trkpt lat="43.88723242116893" lon="2.8795451054670362"><ele>531.6666666666667</ele><time>2026-04-02T11:46:30Z</time></trkpt><trkpt lat="43.88736531180243" lon="2.8796660279278057"><ele>535.0</ele><time>2026-04-02T11:46:31Z</time></trkpt><trkpt lat="43.88747895976598" lon="2.8797749522878022"><ele>535.0</ele><time>2026-04-02T11:46:32Z</time></trkpt><trkpt lat="43.88757579324003" lon="2.8798458360859374"><ele>535.0</ele><time>2026-04-02T11:46:33Z</time></trkpt><trkpt lat="43.88764513289931" lon="2.8799244556451087"><ele>535.0</ele><time>2026-04-02T11:46:34Z</time></trkpt><trkpt lat="43.88771205150217" lon="2.87999872405805"><ele>535.0</ele><time>2026-04-02T11:46:35Z</time></trkpt><trkpt lat="43.88778850875184" lon="2.8800707623729047"><ele>535.0</ele><time>2026-04-02T11:46:36Z</time></trkpt><trkpt lat="43.88787469046514" lon="2.880133259143165"><ele>535.0</ele><time>2026-04-02T11:46:37Z</time></trkpt><trkpt lat="43.88795311724479" lon="2.880181187757075"><ele>535.0</ele><time>2026-04-02T11:46:38Z</time></trkpt><trkpt lat="43.88802383198467" lon="2.88022163597286"><ele>535.0</ele><time>2026-04-02T11:46:39Z</time></trkpt><trkpt lat="43.88807553565942" lon="2.880356798693862"><ele>535.0</ele><time>2026-04-02T11:46:41Z</time></trkpt><trkpt lat="43.88812971673861" lon="2.8804712620246193"><ele>535.0</ele><time>2026-04-02T11:46:43Z</time></trkpt><trkpt lat="43.888236179503394" lon="2.8805058469605664"><ele>535.0</ele><time>2026-04-02T11:46:45Z</time></trkpt><trkpt lat="43.88831101871399" lon="2.8805244679889097"><ele>535.0</ele><time>2026-04-02T11:46:46Z</time></trkpt><trkpt lat="43.888432428296795" lon="2.880584554335618"><ele>535.0</ele><time>2026-04-02T11:46:47Z</time></trkpt><trkpt lat="43.888545256900294" lon="2.8806340341881604"><ele>535.0</ele><time>2026-04-02T11:46:48Z</time></trkpt><trkpt lat="43.88868536877266" lon="2.880713188360067"><ele>538.0</ele><time>2026-04-02T11:46:49Z</time></trkpt><trkpt lat="43.88884615948254" lon="2.8808284058656963"><ele>541.0</ele><time>2026-04-02T11:46:50Z</time></trkpt><trkpt lat="43.88902975139013" lon="2.880955402440847"><ele>544.0</ele><time>2026-04-02T11:46:51Z</time></trkpt><trkpt lat="43.889209746985266" lon="2.881101206481223"><ele>549.6666666666667</ele><time>2026-04-02T11:46:52Z</time></trkpt><trkpt lat="43.889359369607575" lon="2.8812092947835612"><ele>555.3333333333334</ele><time>2026-04-02T11:46:53Z</time></trkpt><trkpt lat="43.88955415893376" lon="2.881348754307001"><ele>561.0</ele><time>2026-04-02T11:46:54Z</time></trkpt><trkpt lat="43.88975565936501" lon="2.8814664774675665"><ele>561.0</ele><time>2026-04-02T11:46:55Z</time></trkpt><trkpt lat="43.889933325177196" lon="2.881591504270414"><ele>561.0</ele><time>2026-04-02T11:46:56Z</time></trkpt><trkpt lat="43.8901074755793" lon="2.881674078498852"><ele>561.0</ele><time>2026-04-02T11:46:57Z</time></trkpt><trkpt lat="43.89027848231372" lon="2.881706694556863"><ele>567.0</ele><time>2026-04-02T11:46:58Z</time></trkpt><trkpt lat="43.89043930581555" lon="2.881648345216909"><ele>573.0</ele><time>2026-04-02T11:46:59Z</time></trkpt><trkpt lat="43.89061285365248" lon="2.8815993318068998"><ele>579.0</ele><time>2026-04-02T11:47:00Z</time></trkpt><trkpt lat="43.8907909897954" lon="2.8815215338335287"><ele>587.0</ele><time>2026-04-02T11:47:01Z</time></trkpt><trkpt lat="43.890984343357154" lon="2.8815236218275353"><ele>595.0</ele><time>2026-04-02T11:47:02Z</time></trkpt><trkpt lat="43.89116463044697" lon="2.881519370091544"><ele>603.0</ele><time>2026-04-02T11:47:03Z</time></trkpt><trkpt lat="43.891318998921776" lon="2.881478165677207"><ele>603.0</ele><time>2026-04-02T11:47:04Z</time></trkpt><trkpt lat="43.891458237386765" lon="2.881440380796317"><ele>603.0</ele><time>2026-04-02T11:47:05Z</time></trkpt><trkpt lat="43.89159223565548" lon="2.8813673025921074"><ele>603.0</ele><time>2026-04-02T11:47:06Z</time></trkpt><trkpt lat="43.89171598369265" lon="2.8812538683848476"><ele>603.0</ele><time>2026-04-02T11:47:07Z</time></trkpt><trkpt lat="43.891821837122336" lon="2.8811052528695154"><ele>606.3333333333334</ele><time>2026-04-02T11:47:08Z</time></trkpt><trkpt lat="43.89190381697718" lon="2.880912507622305"><ele>609.6666666666667</ele><time>2026-04-02T11:47:09Z</time></trkpt><trkpt lat="43.89196391686518" lon="2.8806792548426516"><ele>613.0</ele><time>2026-04-02T11:47:10Z</time></trkpt><trkpt lat="43.892003771645086" lon="2.880435868475099"><ele>613.0</ele><time>2026-04-02T11:47:11Z</time></trkpt><trkpt lat="43.89204132146758" lon="2.8802249701446296"><ele>613.0</ele><time>2026-04-02T11:47:12Z</time></trkpt><trkpt lat="43.89207719161429" lon="2.880064458017807"><ele>613.0</ele><time>2026-04-02T11:47:13Z</time></trkpt><trkpt lat="43.89213022553474" lon="2.8799760084172594"><ele>613.0</ele><time>2026-04-02T11:47:14Z</time></trkpt><trkpt lat="43.89220116956668" lon="2.879952902768296"><ele>613.0</ele><time>2026-04-02T11:47:15Z</time></trkpt><trkpt lat="43.892269287192015" lon="2.8800557753702676"><ele>613.0</ele><time>2026-04-02T11:47:16Z</time></trkpt><trkpt lat="43.89235426630251" lon="2.880079109865649"><ele>613.0</ele><time>2026-04-02T11:47:17Z</time></trkpt><trkpt lat="43.89250326186395" lon="2.880119086365952"><ele>613.0</ele><time>2026-04-02T11:47:18Z</time></trkpt><trkpt lat="43.89267881600977" lon="2.88013433134847"><ele>613.0</ele><time>2026-04-02T11:47:19Z</time></trkpt><trkpt lat="43.89283908290363" lon="2.880162962402697"><ele>615.0</ele><time>2026-04-02T11:47:20Z</time></trkpt><trkpt lat="43.89295199632913" lon="2.880146162320661"><ele>617.0</ele><time>2026-04-02T11:47:21Z</time></trkpt><trkpt lat="43.89302058319388" lon="2.8801576368092343"><ele>619.0</ele><time>2026-04-02T11:47:22Z</time></trkpt><trkpt lat="43.89301845653996" lon="2.8802571230673255"><ele>621.0</ele><time>2026-04-02T11:47:24Z</time></trkpt><trkpt lat="43.89292696360491" lon="2.880313014966062"><ele>623.0</ele><time>2026-04-02T11:47:25Z</time></trkpt><trkpt lat="43.892860131531705" lon="2.8803030661518982"><ele>625.0</ele><time>2026-04-02T11:47:26Z</time></trkpt><trkpt lat="43.89278026537533" lon="2.8802795773850063"><ele>625.0</ele><time>2026-04-02T11:47:27Z</time></trkpt><trkpt lat="43.89263977791794" lon="2.8802706796594792"><ele>625.0</ele><time>2026-04-02T11:47:28Z</time></trkpt><trkpt lat="43.892495331689915" lon="2.880298753235468"><ele>625.0</ele><time>2026-04-02T11:47:29Z</time></trkpt><trkpt lat="43.8923848388208" lon="2.880320688419948"><ele>625.0</ele><time>2026-04-02T11:47:30Z</time></trkpt><trkpt lat="43.89230330695149" lon="2.8803633612014856"><ele>625.0</ele><time>2026-04-02T11:47:31Z</time></trkpt><trkpt lat="43.892272793074305" lon="2.880463798380032"><ele>625.0</ele><time>2026-04-02T11:47:32Z</time></trkpt><trkpt lat="43.89229803565341" lon="2.8805730862010024"><ele>625.0</ele><time>2026-04-02T11:47:33Z</time></trkpt><trkpt lat="43.89237331792991" lon="2.8806721697209055"><ele>625.0</ele><time>2026-04-02T11:47:34Z</time></trkpt><trkpt lat="43.892494012466145" lon="2.8807449947467534"><ele>625.0</ele><time>2026-04-02T11:47:35Z</time></trkpt><trkpt lat="43.89266930073157" lon="2.8807701130400303"><ele>625.0</ele><time>2026-04-02T11:47:36Z</time></trkpt><trkpt lat="43.892824842932896" lon="2.8808216626379126"><ele>625.0</ele><time>2026-04-02T11:47:37Z</time></trkpt><trkpt lat="43.8929860471426" lon="2.880815932703656"><ele>625.0</ele><time>2026-04-02T11:47:38Z</time></trkpt><trkpt lat="43.89314012699915" lon="2.880821919077526"><ele>625.0</ele><time>2026-04-02T11:47:39Z</time></trkpt><trkpt lat="43.89328094619262" lon="2.8808539269121702"><ele>625.0</ele><time>2026-04-02T11:47:40Z</time></trkpt><trkpt lat="43.89341479568902" lon="2.8808914659009157"><ele>625.0</ele><time>2026-04-02T11:47:41Z</time></trkpt><trkpt lat="43.893546210784976" lon="2.880951899211214"><ele>625.0</ele><time>2026-04-02T11:47:42Z</time></trkpt><trkpt lat="43.893683502758115" lon="2.8810295341992775"><ele>634.3333333333334</ele><time>2026-04-02T11:47:43Z</time></trkpt><trkpt lat="43.893832119177006" lon="2.8810909809674516"><ele>643.6666666666666</ele><time>2026-04-02T11:47:44Z</time></trkpt><trkpt lat="43.89398771720358" lon="2.881135826613079"><ele>653.0</ele><time>2026-04-02T11:47:45Z</time></trkpt><trkpt lat="43.89413873111332" lon="2.881147207450092"><ele>653.25</ele><time>2026-04-02T11:47:46Z</time></trkpt><trkpt lat="43.894282142678406" lon="2.8811476296456995"><ele>653.5</ele><time>2026-04-02T11:47:47Z</time></trkpt><trkpt lat="43.89442294542216" lon="2.8811457850880795"><ele>653.75</ele><time>2026-04-02T11:47:48Z</time></trkpt><trkpt lat="43.89456270544851" lon="2.8811339738397233"><ele>654.0</ele><time>2026-04-02T11:47:49Z</time></trkpt><trkpt lat="43.89470041367139" lon="2.881143004142374"><ele>654.0</ele><time>2026-04-02T11:47:50Z</time></trkpt><trkpt lat="43.89483246334441" lon="2.8811983718448917"><ele>654.0</ele><time>2026-04-02T11:47:51Z</time></trkpt><trkpt lat="43.894967710701366" lon="2.881235502188231"><ele>654.0</ele><time>2026-04-02T11:47:52Z</time></trkpt><trkpt lat="43.895097993643475" lon="2.8812422272184004"><ele>654.0</ele><time>2026-04-02T11:47:53Z</time></trkpt><trkpt lat="43.89522037994959" lon="2.8812652428517778"><ele>654.75</ele><time>2026-04-02T11:47:54Z</time></trkpt><trkpt lat="43.89534014251956" lon="2.8812810360880134"><ele>655.5</ele><time>2026-04-02T11:47:55Z</time></trkpt><trkpt lat="43.895457939113726" lon="2.8812920125592143"><ele>656.25</ele><time>2026-04-02T11:47:56Z</time></trkpt><trkpt lat="43.895572779436655" lon="2.881338510760599"><ele>657.0</ele><time>2026-04-02T11:47:57Z</time></trkpt><trkpt lat="43.895689427118114" lon="2.8813647067905483"><ele>657.0</ele><time>2026-04-02T11:47:58Z</time></trkpt><trkpt lat="43.89580260560224" lon="2.8813662964823394"><ele>657.0</ele><time>2026-04-02T11:47:59Z</time></trkpt><trkpt lat="43.89591062951996" lon="2.8813758792829947"><ele>657.0</ele><time>2026-04-02T11:48:00Z</time></trkpt><trkpt lat="43.89602976133466" lon="2.8813714533374943"><ele>657.0</ele><time>2026-04-02T11:48:01Z</time></trkpt><trkpt lat="43.89616326975784" lon="2.8813815894346133"><ele>659.0</ele><time>2026-04-02T11:48:02Z</time></trkpt><trkpt lat="43.896300610685934" lon="2.881394004949476"><ele>661.0</ele><time>2026-04-02T11:48:03Z</time></trkpt><trkpt lat="43.89643383953573" lon="2.8814054520627863"><ele>663.0</ele><time>2026-04-02T11:48:04Z</time></trkpt><trkpt lat="43.89655704274184" lon="2.8814143550014113"><ele>665.0</ele><time>2026-04-02T11:48:05Z</time></trkpt><trkpt lat="43.89667299489955" lon="2.8814215124106863"><ele>666.75</ele><time>2026-04-02T11:48:06Z</time></trkpt><trkpt lat="43.89678405766277" lon="2.8814140991575448"><ele>668.5</ele><time>2026-04-02T11:48:07Z</time></trkpt><trkpt lat="43.896890297272044" lon="2.8814391727045563"><ele>670.25</ele><time>2026-04-02T11:48:08Z</time></trkpt><trkpt lat="43.89700324915839" lon="2.881464413381326"><ele>672.0</ele><time>2026-04-02T11:48:09Z</time></trkpt><trkpt lat="43.897146365815075" lon="2.8814620205675134"><ele>672.0</ele><time>2026-04-02T11:48:10Z</time></trkpt><trkpt lat="43.89730362118081" lon="2.881485594566066"><ele>672.0</ele><time>2026-04-02T11:48:11Z</time></trkpt><trkpt lat="43.897474691650295" lon="2.881516514172148"><ele>672.0</ele><time>2026-04-02T11:48:12Z</time></trkpt><trkpt lat="43.89762505070014" lon="2.881600651809841"><ele>675.25</ele><time>2026-04-02T11:48:13Z</time></trkpt><trkpt lat="43.897775628742195" lon="2.8816334356422306"><ele>678.5</ele><time>2026-04-02T11:48:14Z</time></trkpt><trkpt lat="43.89792022186588" lon="2.88162251321441"><ele>681.75</ele><time>2026-04-02T11:48:15Z</time></trkpt><trkpt lat="43.89805757980747" lon="2.8815515827314337"><ele>685.0</ele><time>2026-04-02T11:48:16Z</time></trkpt><trkpt lat="43.89818890937748" lon="2.881484737128415"><ele>685.0</ele><time>2026-04-02T11:48:17Z</time></trkpt><trkpt lat="43.898310427107845" lon="2.8814055414293667"><ele>685.0</ele><time>2026-04-02T11:48:18Z</time></trkpt><trkpt lat="43.898424364354895" lon="2.8813027526195776"><ele>685.0</ele><time>2026-04-02T11:48:19Z</time></trkpt><trkpt lat="43.89853979454566" lon="2.8811695832361677"><ele>685.0</ele><time>2026-04-02T11:48:20Z</time></trkpt><trkpt lat="43.89866055999304" lon="2.8810213256811914"><ele>685.0</ele><time>2026-04-02T11:48:21Z</time></trkpt><trkpt lat="43.89879048404267" lon="2.8808786686985273"><ele>685.0</ele><time>2026-04-02T11:48:22Z</time></trkpt><trkpt lat="43.89893165113672" lon="2.88074184807062"><ele>685.0</ele><time>2026-04-02T11:48:23Z</time></trkpt><trkpt lat="43.89907827715291" lon="2.8805898698549437"><ele>685.0</ele><time>2026-04-02T11:48:24Z</time></trkpt><trkpt lat="43.899203042094435" lon="2.8804310133718594"><ele>685.0</ele><time>2026-04-02T11:48:25Z</time></trkpt><trkpt lat="43.8992994703047" lon="2.880283374519065"><ele>685.0</ele><time>2026-04-02T11:48:26Z</time></trkpt><trkpt lat="43.89937535460369" lon="2.88016892444881"><ele>685.0</ele><time>2026-04-02T11:48:27Z</time></trkpt><trkpt lat="43.89945838711532" lon="2.880105114110651"><ele>686.0</ele><time>2026-04-02T11:48:28Z</time></trkpt><trkpt lat="43.899546393644336" lon="2.8801044029159897"><ele>687.0</ele><time>2026-04-02T11:48:29Z</time></trkpt><trkpt lat="43.89963963477077" lon="2.8801545209748296"><ele>688.0</ele><time>2026-04-02T11:48:30Z</time></trkpt><trkpt lat="43.899761550954565" lon="2.880222515780524"><ele>689.0</ele><time>2026-04-02T11:48:31Z</time></trkpt><trkpt lat="43.89991384507655" lon="2.8802983024053184"><ele>688.6666666666666</ele><time>2026-04-02T11:48:32Z</time></trkpt><trkpt lat="43.90009310299814" lon="2.880359698040054"><ele>688.3333333333334</ele><time>2026-04-02T11:48:33Z</time></trkpt><trkpt lat="43.9002740460685" lon="2.880390676295199"><ele>688.0</ele><time>2026-04-02T11:48:34Z</time></trkpt><trkpt lat="43.90047577912515" lon="2.880408540742914"><ele>688.0</ele><time>2026-04-02T11:48:35Z</time></trkpt><trkpt lat="43.900684070092936" lon="2.8804288508154863"><ele>688.0</ele><time>2026-04-02T11:48:36Z</time></trkpt><trkpt lat="43.9009004343937" lon="2.88045546578615"><ele>688.0</ele><time>2026-04-02T11:48:37Z</time></trkpt><trkpt lat="43.90111915723077" lon="2.880480999288772"><ele>688.0</ele><time>2026-04-02T11:48:38Z</time></trkpt><trkpt lat="43.90133515872272" lon="2.8805083742267543"><ele>688.0</ele><time>2026-04-02T11:48:39Z</time></trkpt><trkpt lat="43.901556044003776" lon="2.8805330110936844"><ele>688.0</ele><time>2026-04-02T11:48:40Z</time></trkpt><trkpt lat="43.90177314925028" lon="2.880554187097128"><ele>689.0</ele><time>2026-04-02T11:48:41Z</time></trkpt><trkpt lat="43.9019869146411" lon="2.880579809070355"><ele>690.0</ele><time>2026-04-02T11:48:42Z</time></trkpt><trkpt lat="43.90219644601767" lon="2.880607328790783"><ele>691.0</ele><time>2026-04-02T11:48:43Z</time></trkpt><trkpt lat="43.902397731134904" lon="2.880632720249833"><ele>692.3333333333334</ele><time>2026-04-02T11:48:44Z</time></trkpt><trkpt lat="43.90259340363671" lon="2.88066278739981"><ele>693.6666666666666</ele><time>2026-04-02T11:48:45Z</time></trkpt><trkpt lat="43.902777302469985" lon="2.8807010468788756"><ele>695.0</ele><time>2026-04-02T11:48:46Z</time></trkpt><trkpt lat="43.90296002669216" lon="2.880754096799182"><ele>695.0</ele><time>2026-04-02T11:48:47Z</time></trkpt><trkpt lat="43.90313937049505" lon="2.8808141544759827"><ele>695.0</ele><time>2026-04-02T11:48:48Z</time></trkpt><trkpt lat="43.90331264731818" lon="2.880881210607871"><ele>695.0</ele><time>2026-04-02T11:48:49Z</time></trkpt><trkpt lat="43.90349095541843" lon="2.880956636646127"><ele>696.0</ele><time>2026-04-02T11:48:50Z</time></trkpt><trkpt lat="43.90365379820254" lon="2.8810190993604685"><ele>697.0</ele><time>2026-04-02T11:48:51Z</time></trkpt><trkpt lat="43.90380285130245" lon="2.8810629891173933"><ele>698.0</ele><time>2026-04-02T11:48:52Z</time></trkpt><trkpt lat="43.90395499013288" lon="2.8810743350203594"><ele>698.0</ele><time>2026-04-02T11:48:53Z</time></trkpt><trkpt lat="43.90412347642584" lon="2.881047627433197"><ele>698.0</ele><time>2026-04-02T11:48:54Z</time></trkpt><trkpt lat="43.90430050487579" lon="2.8810082462378395"><ele>698.0</ele><time>2026-04-02T11:48:55Z</time></trkpt><trkpt lat="43.90448331932594" lon="2.880983839272423"><ele>697.3333333333333</ele><time>2026-04-02T11:48:56Z</time></trkpt><trkpt lat="43.90466748804905" lon="2.880959169457397"><ele>696.6666666666666</ele><time>2026-04-02T11:48:57Z</time></trkpt><trkpt lat="43.90484030557906" lon="2.880932052444979"><ele>696.0</ele><time>2026-04-02T11:48:58Z</time></trkpt><trkpt lat="43.905034860327625" lon="2.88091008437205"><ele>695.6666666666666</ele><time>2026-04-02T11:48:59Z</time></trkpt><trkpt lat="43.905244913637176" lon="2.880926326514341"><ele>695.3333333333333</ele><time>2026-04-02T11:49:00Z</time></trkpt><trkpt lat="43.905450375791276" lon="2.8809305313424285"><ele>695.0</ele><time>2026-04-02T11:49:01Z</time></trkpt><trkpt lat="43.90566780997281" lon="2.8809397533631484"><ele>695.0</ele><time>2026-04-02T11:49:02Z</time></trkpt><trkpt lat="43.90586763255287" lon="2.880927588350523"><ele>695.0</ele><time>2026-04-02T11:49:03Z</time></trkpt><trkpt lat="43.90606586949456" lon="2.8809372938880076"><ele>695.0</ele><time>2026-04-02T11:49:04Z</time></trkpt><trkpt lat="43.906246159381666" lon="2.8809358641435523"><ele>693.0</ele><time>2026-04-02T11:49:05Z</time></trkpt><trkpt lat="43.90643056637355" lon="2.8809248647012122"><ele>691.0</ele><time>2026-04-02T11:49:06Z</time></trkpt><trkpt lat="43.906613812305814" lon="2.88091279459281"><ele>689.0</ele><time>2026-04-02T11:49:07Z</time></trkpt><trkpt lat="43.90678847266113" lon="2.8809016369054126"><ele>688.6666666666666</ele><time>2026-04-02T11:49:08Z</time></trkpt><trkpt lat="43.90697275499289" lon="2.8808774318689525"><ele>688.3333333333334</ele><time>2026-04-02T11:49:09Z</time></trkpt><trkpt lat="43.9071519630403" lon="2.880837424329528"><ele>688.0</ele><time>2026-04-02T11:49:10Z</time></trkpt><trkpt lat="43.90732865715039" lon="2.880796236065756"><ele>688.0</ele><time>2026-04-02T11:49:11Z</time></trkpt><trkpt lat="43.90750907236436" lon="2.8807531223966074"><ele>688.0</ele><time>2026-04-02T11:49:12Z</time></trkpt><trkpt lat="43.90769205481536" lon="2.880703266260592"><ele>688.0</ele><time>2026-04-02T11:49:13Z</time></trkpt><trkpt lat="43.907874656275105" lon="2.8806507623206508"><ele>687.6666666666667</ele><time>2026-04-02T11:49:14Z</time></trkpt><trkpt lat="43.90804708831343" lon="2.880566089355037"><ele>687.3333333333334</ele><time>2026-04-02T11:49:15Z</time></trkpt><trkpt lat="43.90820687721526" lon="2.8804308699778463"><ele>687.0</ele><time>2026-04-02T11:49:16Z</time></trkpt><trkpt lat="43.90837032442069" lon="2.8802815797904318"><ele>688.0</ele><time>2026-04-02T11:49:17Z</time></trkpt><trkpt lat="43.90853968891451" lon="2.8801308616411387"><ele>689.0</ele><time>2026-04-02T11:49:18Z</time></trkpt><trkpt lat="43.90871849836815" lon="2.8799634142450077"><ele>690.0</ele><time>2026-04-02T11:49:19Z</time></trkpt><trkpt lat="43.908877981437925" lon="2.879802645996535"><ele>690.3333333333334</ele><time>2026-04-02T11:49:20Z</time></trkpt><trkpt lat="43.909018867876135" lon="2.8796478018348046"><ele>690.6666666666667</ele><time>2026-04-02T11:49:21Z</time></trkpt><trkpt lat="43.90914073392185" lon="2.879487071577607"><ele>691.0</ele><time>2026-04-02T11:49:22Z</time></trkpt><trkpt lat="43.90924909491598" lon="2.879308314965687"><ele>693.3333333333334</ele><time>2026-04-02T11:49:23Z</time></trkpt><trkpt lat="43.90934910188039" lon="2.879119035893343"><ele>695.6666666666666</ele><time>2026-04-02T11:49:24Z</time></trkpt><trkpt lat="43.90944279404688" lon="2.8789225578566957"><ele>698.0</ele><time>2026-04-02T11:49:25Z</time></trkpt><trkpt lat="43.90953755327542" lon="2.878719131163513"><ele>698.0</ele><time>2026-04-02T11:49:26Z</time></trkpt><trkpt lat="43.90964435820864" lon="2.8784970647085513"><ele>698.0</ele><time>2026-04-02T11:49:27Z</time></trkpt><trkpt lat="43.909757302278564" lon="2.8782695764339272"><ele>698.0</ele><time>2026-04-02T11:49:28Z</time></trkpt><trkpt lat="43.90986425254722" lon="2.8780455349755187"><ele>698.0</ele><time>2026-04-02T11:49:29Z</time></trkpt><trkpt lat="43.90996948912212" lon="2.87781313789023"><ele>698.0</ele><time>2026-04-02T11:49:30Z</time></trkpt><trkpt lat="43.910065836478324" lon="2.8775738296198656"><ele>698.0</ele><time>2026-04-02T11:49:31Z</time></trkpt><trkpt lat="43.9101607810695" lon="2.877327331099493"><ele>698.0</ele><time>2026-04-02T11:49:32Z</time></trkpt><trkpt lat="43.91026460531568" lon="2.877078035367087"><ele>698.0</ele><time>2026-04-02T11:49:33Z</time></trkpt><trkpt lat="43.91037339573645" lon="2.876832942128601"><ele>698.0</ele><time>2026-04-02T11:49:34Z</time></trkpt><trkpt lat="43.910479932696845" lon="2.8765900136069473"><ele>695.3333333333333</ele><time>2026-04-02T11:49:35Z</time></trkpt><trkpt lat="43.91058818950773" lon="2.8763439189843965"><ele>692.6666666666666</ele><time>2026-04-02T11:49:36Z</time></trkpt><trkpt lat="43.91070173063942" lon="2.876101913753665"><ele>690.0</ele><time>2026-04-02T11:49:37Z</time></trkpt><trkpt lat="43.91082325013891" lon="2.8758705174849446"><ele>690.6666666666666</ele><time>2026-04-02T11:49:38Z</time></trkpt><trkpt lat="43.91094980548519" lon="2.875650483056355"><ele>691.3333333333333</ele><time>2026-04-02T11:49:39Z</time></trkpt><trkpt lat="43.911077654900126" lon="2.8754356957889105"><ele>692.0</ele><time>2026-04-02T11:49:40Z</time></trkpt><trkpt lat="43.9112038611367" lon="2.8752433521324914"><ele>689.0</ele><time>2026-04-02T11:49:41Z</time></trkpt><trkpt lat="43.91132172434095" lon="2.8750749594068212"><ele>686.0</ele><time>2026-04-02T11:49:42Z</time></trkpt><trkpt lat="43.91143724539204" lon="2.8749218032343746"><ele>683.0</ele><time>2026-04-02T11:49:43Z</time></trkpt><trkpt lat="43.91155162443064" lon="2.8747919073115265"><ele>683.0</ele><time>2026-04-02T11:49:44Z</time></trkpt><trkpt lat="43.911669008122786" lon="2.874671775867285"><ele>683.0</ele><time>2026-04-02T11:49:45Z</time></trkpt><trkpt lat="43.911792728819805" lon="2.8745499389402855"><ele>683.0</ele><time>2026-04-02T11:49:46Z</time></trkpt><trkpt lat="43.911920871570686" lon="2.874430588008787"><ele>683.75</ele><time>2026-04-02T11:49:47Z</time></trkpt><trkpt lat="43.91204894242746" lon="2.874340575087042"><ele>684.5</ele><time>2026-04-02T11:49:48Z</time></trkpt><trkpt lat="43.912174194184004" lon="2.874284552170455"><ele>685.25</ele><time>2026-04-02T11:49:49Z</time></trkpt><trkpt lat="43.9123026298382" lon="2.8743097093064076"><ele>686.0</ele><time>2026-04-02T11:49:50Z</time></trkpt><trkpt lat="43.91244161171754" lon="2.8743492097020096"><ele>686.25</ele><time>2026-04-02T11:49:51Z</time></trkpt><trkpt lat="43.912591145832266" lon="2.8743606466732445"><ele>686.5</ele><time>2026-04-02T11:49:52Z</time></trkpt><trkpt lat="43.91274314166699" lon="2.8743738960073104"><ele>686.75</ele><time>2026-04-02T11:49:53Z</time></trkpt><trkpt lat="43.912878541598126" lon="2.8743387887097653"><ele>687.0</ele><time>2026-04-02T11:49:54Z</time></trkpt><trkpt lat="43.91300610150638" lon="2.8742745496354685"><ele>683.0</ele><time>2026-04-02T11:49:55Z</time></trkpt><trkpt lat="43.91314336152987" lon="2.8742226399031128"><ele>679.0</ele><time>2026-04-02T11:49:56Z</time></trkpt><trkpt lat="43.91330330562097" lon="2.874221940417753"><ele>675.0</ele><time>2026-04-02T11:49:57Z</time></trkpt><trkpt lat="43.913475350242386" lon="2.8741958978725584"><ele>673.3333333333334</ele><time>2026-04-02T11:49:58Z</time></trkpt><trkpt lat="43.91365898582324" lon="2.8741992045095044"><ele>671.6666666666667</ele><time>2026-04-02T11:49:59Z</time></trkpt><trkpt lat="43.913844201945565" lon="2.874222236988952"><ele>670.0</ele><time>2026-04-02T11:50:00Z</time></trkpt><trkpt lat="43.91402274511261" lon="2.8742402781884797"><ele>670.0</ele><time>2026-04-02T11:50:01Z</time></trkpt><trkpt lat="43.91418442465099" lon="2.874253980550126"><ele>670.0</ele><time>2026-04-02T11:50:02Z</time></trkpt><trkpt lat="43.91432797817437" lon="2.8743349643953087"><ele>670.0</ele><time>2026-04-02T11:50:03Z</time></trkpt><trkpt lat="43.914467376868714" lon="2.8744206998339203"><ele>668.6666666666667</ele><time>2026-04-02T11:50:04Z</time></trkpt><trkpt lat="43.91460661469445" lon="2.8745281391228685"><ele>667.3333333333334</ele><time>2026-04-02T11:50:05Z</time></trkpt><trkpt lat="43.91474460775347" lon="2.8746147431240394"><ele>666.0</ele><time>2026-04-02T11:50:06Z</time></trkpt><trkpt lat="43.914877671964646" lon="2.8747086090136738"><ele>666.0</ele><time>2026-04-02T11:50:07Z</time></trkpt><trkpt lat="43.91503421141467" lon="2.874748921655032"><ele>666.0</ele><time>2026-04-02T11:50:08Z</time></trkpt><trkpt lat="43.91519246002037" lon="2.8747381769705314"><ele>666.0</ele><time>2026-04-02T11:50:09Z</time></trkpt><trkpt lat="43.9153364738699" lon="2.8746596793466583"><ele>666.6666666666666</ele><time>2026-04-02T11:50:10Z</time></trkpt><trkpt lat="43.915470071070125" lon="2.874505642567526"><ele>667.3333333333333</ele><time>2026-04-02T11:50:11Z</time></trkpt><trkpt lat="43.91560786439481" lon="2.8743594497915885"><ele>668.0</ele><time>2026-04-02T11:50:12Z</time></trkpt><trkpt lat="43.915719499981165" lon="2.8742357476552587"><ele>667.0</ele><time>2026-04-02T11:50:13Z</time></trkpt><trkpt lat="43.915799020157884" lon="2.8741207950070646"><ele>666.0</ele><time>2026-04-02T11:50:14Z</time></trkpt><trkpt lat="43.91583756994244" lon="2.8739530203144468"><ele>665.0</ele><time>2026-04-02T11:50:15Z</time></trkpt><trkpt lat="43.91584699218971" lon="2.8737495524308643"><ele>664.0</ele><time>2026-04-02T11:50:16Z</time></trkpt><trkpt lat="43.91585752617913" lon="2.8735612367814096"><ele>664.25</ele><time>2026-04-02T11:50:17Z</time></trkpt><trkpt lat="43.91590597122536" lon="2.87340297229579"><ele>664.5</ele><time>2026-04-02T11:50:18Z</time></trkpt><trkpt lat="43.91598522027674" lon="2.873269909286314"><ele>664.75</ele><time>2026-04-02T11:50:19Z</time></trkpt><trkpt lat="43.91610254578212" lon="2.8731624149762585"><ele>665.0</ele><time>2026-04-02T11:50:20Z</time></trkpt><trkpt lat="43.91623762730443" lon="2.8730461277772963"><ele>665.0</ele><time>2026-04-02T11:50:21Z</time></trkpt><trkpt lat="43.91635996350065" lon="2.8729227086675846"><ele>665.0</ele><time>2026-04-02T11:50:22Z</time></trkpt><trkpt lat="43.91648001728855" lon="2.8728182037865175"><ele>665.0</ele><time>2026-04-02T11:50:23Z</time></trkpt><trkpt lat="43.916615059256685" lon="2.87272380398695"><ele>665.0</ele><time>2026-04-02T11:50:24Z</time></trkpt><trkpt lat="43.91675215474963" lon="2.872629805135047"><ele>661.3333333333333</ele><time>2026-04-02T11:50:25Z</time></trkpt><trkpt lat="43.91688940337905" lon="2.87253662418444"><ele>657.6666666666666</ele><time>2026-04-02T11:50:26Z</time></trkpt><trkpt lat="43.91703079187233" lon="2.8724536903309237"><ele>654.0</ele><time>2026-04-02T11:50:27Z</time></trkpt><trkpt lat="43.91717968096507" lon="2.8723800308052314"><ele>654.0</ele><time>2026-04-02T11:50:28Z</time></trkpt><trkpt lat="43.917332073991105" lon="2.872301843694088"><ele>654.0</ele><time>2026-04-02T11:50:29Z</time></trkpt><trkpt lat="43.917480212892066" lon="2.872227487980763"><ele>654.0</ele><time>2026-04-02T11:50:30Z</time></trkpt><trkpt lat="43.917633993870936" lon="2.872160106974013"><ele>652.3333333333334</ele><time>2026-04-02T11:50:31Z</time></trkpt><trkpt lat="43.917814079941685" lon="2.87210132398676"><ele>650.6666666666667</ele><time>2026-04-02T11:50:32Z</time></trkpt><trkpt lat="43.91801791633705" lon="2.8721049244375503"><ele>649.0</ele><time>2026-04-02T11:50:33Z</time></trkpt><trkpt lat="43.918208626592495" lon="2.8720994390241366"><ele>649.0</ele><time>2026-04-02T11:50:34Z</time></trkpt><trkpt lat="43.918377826091756" lon="2.8720823017690393"><ele>649.0</ele><time>2026-04-02T11:50:35Z</time></trkpt><trkpt lat="43.91854798759243" lon="2.872110390227218"><ele>649.0</ele><time>2026-04-02T11:50:36Z</time></trkpt><trkpt lat="43.918715196067616" lon="2.8722071325791854"><ele>644.6666666666667</ele><time>2026-04-02T11:50:37Z</time></trkpt><trkpt lat="43.918875944385455" lon="2.872290597776632"><ele>640.3333333333334</ele><time>2026-04-02T11:50:38Z</time></trkpt><trkpt lat="43.919022526019745" lon="2.8723760259148885"><ele>636.0</ele><time>2026-04-02T11:50:39Z</time></trkpt><trkpt lat="43.91917790818481" lon="2.872486488350178"><ele>632.6666666666666</ele><time>2026-04-02T11:50:40Z</time></trkpt><trkpt lat="43.91932713023215" lon="2.87262331474016"><ele>629.3333333333333</ele><time>2026-04-02T11:50:41Z</time></trkpt><trkpt lat="43.919480622873486" lon="2.8727638999928073"><ele>626.0</ele><time>2026-04-02T11:50:42Z</time></trkpt><trkpt lat="43.91963993286232" lon="2.8729073916901813"><ele>626.0</ele><time>2026-04-02T11:50:43Z</time></trkpt><trkpt lat="43.919806247967436" lon="2.873030940407061"><ele>626.0</ele><time>2026-04-02T11:50:44Z</time></trkpt><trkpt lat="43.91996541712443" lon="2.873190275268356"><ele>626.0</ele><time>2026-04-02T11:50:45Z</time></trkpt><trkpt lat="43.92010250896107" lon="2.873383235445292"><ele>621.3333333333333</ele><time>2026-04-02T11:50:46Z</time></trkpt><trkpt lat="43.92025535207681" lon="2.8735756519392917"><ele>616.6666666666666</ele><time>2026-04-02T11:50:47Z</time></trkpt><trkpt lat="43.92044040080255" lon="2.873767674511843"><ele>612.0</ele><time>2026-04-02T11:50:48Z</time></trkpt><trkpt lat="43.92061665543495" lon="2.8739839719715583"><ele>612.0</ele><time>2026-04-02T11:50:49Z</time></trkpt><trkpt lat="43.920789550111266" lon="2.874172263351942"><ele>612.0</ele><time>2026-04-02T11:50:50Z</time></trkpt><trkpt lat="43.920965739500616" lon="2.8743539632094466"><ele>612.0</ele><time>2026-04-02T11:50:51Z</time></trkpt><trkpt lat="43.921167683284246" lon="2.8745350442250333"><ele>611.6666666666666</ele><time>2026-04-02T11:50:52Z</time></trkpt><trkpt lat="43.92135776448137" lon="2.874697426617015"><ele>611.3333333333333</ele><time>2026-04-02T11:50:53Z</time></trkpt><trkpt lat="43.9215426019629" lon="2.874864938972553"><ele>611.0</ele><time>2026-04-02T11:50:54Z</time></trkpt><trkpt lat="43.92171629622451" lon="2.8750220224328196"><ele>611.3333333333333</ele><time>2026-04-02T11:50:55Z</time></trkpt><trkpt lat="43.921871885210415" lon="2.8751932284262094"><ele>611.6666666666666</ele><time>2026-04-02T11:50:56Z</time></trkpt><trkpt lat="43.92202479952044" lon="2.8753600608785197"><ele>612.0</ele><time>2026-04-02T11:50:57Z</time></trkpt><trkpt lat="43.92218825858365" lon="2.8755093907013527"><ele>612.0</ele><time>2026-04-02T11:50:58Z</time></trkpt><trkpt lat="43.92235080010673" lon="2.875667796582986"><ele>612.0</ele><time>2026-04-02T11:50:59Z</time></trkpt><trkpt lat="43.92251539665808" lon="2.8757970826789347"><ele>612.0</ele><time>2026-04-02T11:51:00Z</time></trkpt><trkpt lat="43.92268686935821" lon="2.8759095003429924"><ele>616.3333333333334</ele><time>2026-04-02T11:51:01Z</time></trkpt><trkpt lat="43.9228785685463" lon="2.875994336451444"><ele>620.6666666666667</ele><time>2026-04-02T11:51:02Z</time></trkpt><trkpt lat="43.92307339240179" lon="2.8760579091834866"><ele>625.0</ele><time>2026-04-02T11:51:03Z</time></trkpt><trkpt lat="43.92324872623996" lon="2.876110841933976"><ele>625.0</ele><time>2026-04-02T11:51:04Z</time></trkpt><trkpt lat="43.92339387806267" lon="2.876150473646184"><ele>625.0</ele><time>2026-04-02T11:51:05Z</time></trkpt><trkpt lat="43.92352887897084" lon="2.8761703312692743"><ele>625.0</ele><time>2026-04-02T11:51:06Z</time></trkpt><trkpt lat="43.92366320774074" lon="2.876130887338745"><ele>625.0</ele><time>2026-04-02T11:51:07Z</time></trkpt><trkpt lat="43.92378690072411" lon="2.8760276534507496"><ele>614.3333333333334</ele><time>2026-04-02T11:51:08Z</time></trkpt><trkpt lat="43.92390594796249" lon="2.8758597984858927"><ele>603.6666666666666</ele><time>2026-04-02T11:51:09Z</time></trkpt><trkpt lat="43.924028156738366" lon="2.875642534421011"><ele>593.0</ele><time>2026-04-02T11:51:10Z</time></trkpt><trkpt lat="43.924159069284634" lon="2.8754235435541604"><ele>596.0</ele><time>2026-04-02T11:51:11Z</time></trkpt><trkpt lat="43.9242842746484" lon="2.875232467072659"><ele>599.0</ele><time>2026-04-02T11:51:12Z</time></trkpt><trkpt lat="43.924402005362914" lon="2.8750639326264023"><ele>602.0</ele><time>2026-04-02T11:51:13Z</time></trkpt><trkpt lat="43.92452038582895" lon="2.874969739185844"><ele>596.5</ele><time>2026-04-02T11:51:14Z</time></trkpt><trkpt lat="43.92463565858376" lon="2.874928426793415"><ele>591.0</ele><time>2026-04-02T11:51:15Z</time></trkpt><trkpt lat="43.92475329499694" lon="2.874958525730692"><ele>585.5</ele><time>2026-04-02T11:51:16Z</time></trkpt><trkpt lat="43.92490224145129" lon="2.8750244094028816"><ele>580.0</ele><time>2026-04-02T11:51:17Z</time></trkpt><trkpt lat="43.92508354294766" lon="2.875086171197273"><ele>587.0</ele><time>2026-04-02T11:51:18Z</time></trkpt><trkpt lat="43.925277569232584" lon="2.875176545762681"><ele>594.0</ele><time>2026-04-02T11:51:19Z</time></trkpt><trkpt lat="43.925460020708" lon="2.8752427202501916"><ele>601.0</ele><time>2026-04-02T11:51:20Z</time></trkpt><trkpt lat="43.925623674430454" lon="2.8752934779535155"><ele>601.0</ele><time>2026-04-02T11:51:21Z</time></trkpt><trkpt lat="43.925776635075685" lon="2.8753372881927644"><ele>601.0</ele><time>2026-04-02T11:51:22Z</time></trkpt><trkpt lat="43.92592496628431" lon="2.875345145249864"><ele>601.0</ele><time>2026-04-02T11:51:23Z</time></trkpt><trkpt lat="43.926083670568524" lon="2.8752733568446893"><ele>597.6666666666667</ele><time>2026-04-02T11:51:24Z</time></trkpt><trkpt lat="43.92625496526605" lon="2.8751427033112456"><ele>594.3333333333334</ele><time>2026-04-02T11:51:25Z</time></trkpt><trkpt lat="43.92642715980053" lon="2.8750176272875874"><ele>591.0</ele><time>2026-04-02T11:51:26Z</time></trkpt><trkpt lat="43.926595588112036" lon="2.8748936764023467"><ele>600.3333333333334</ele><time>2026-04-02T11:51:27Z</time></trkpt><trkpt lat="43.92673885248836" lon="2.874741721214955"><ele>609.6666666666667</ele><time>2026-04-02T11:51:28Z</time></trkpt><trkpt lat="43.92686545273113" lon="2.87455366198563"><ele>619.0</ele><time>2026-04-02T11:51:29Z</time></trkpt><trkpt lat="43.926985668675826" lon="2.8743562621072316"><ele>610.0</ele><time>2026-04-02T11:51:30Z</time></trkpt><trkpt lat="43.92711100537423" lon="2.8741665379913335"><ele>601.0</ele><time>2026-04-02T11:51:31Z</time></trkpt><trkpt lat="43.92723450178079" lon="2.873984134920664"><ele>592.0</ele><time>2026-04-02T11:51:32Z</time></trkpt><trkpt lat="43.927361088362495" lon="2.873793549158401"><ele>592.0</ele><time>2026-04-02T11:51:33Z</time></trkpt><trkpt lat="43.9274915790136" lon="2.87361549577692"><ele>592.0</ele><time>2026-04-02T11:51:34Z</time></trkpt><trkpt lat="43.92762923429663" lon="2.873455220275906"><ele>592.0</ele><time>2026-04-02T11:51:35Z</time></trkpt><trkpt lat="43.92779529968748" lon="2.8733581810050453"><ele>592.0</ele><time>2026-04-02T11:51:36Z</time></trkpt><trkpt lat="43.92797628085431" lon="2.8732845680633625"><ele>592.0</ele><time>2026-04-02T11:51:37Z</time></trkpt><trkpt lat="43.92816784980186" lon="2.873217429448924"><ele>592.0</ele><time>2026-04-02T11:51:38Z</time></trkpt><trkpt lat="43.92835138443392" lon="2.8731214966126344"><ele>597.3333333333334</ele><time>2026-04-02T11:51:39Z</time></trkpt><trkpt lat="43.928519968051084" lon="2.8729978345418585"><ele>602.6666666666666</ele><time>2026-04-02T11:51:40Z</time></trkpt><trkpt lat="43.92866456334196" lon="2.8728333833992155"><ele>608.0</ele><time>2026-04-02T11:51:41Z</time></trkpt><trkpt lat="43.92880238245108" lon="2.8727167692149282"><ele>608.0</ele><time>2026-04-02T11:51:42Z</time></trkpt><trkpt lat="43.92893835424008" lon="2.8726472438259116"><ele>608.0</ele><time>2026-04-02T11:51:43Z</time></trkpt><trkpt lat="43.92910349245354" lon="2.8726000502061173"><ele>608.0</ele><time>2026-04-02T11:51:44Z</time></trkpt><trkpt lat="43.92926406001778" lon="2.8725069499753784"><ele>601.3333333333333</ele><time>2026-04-02T11:51:45Z</time></trkpt><trkpt lat="43.92941469097741" lon="2.872399577225888"><ele>594.6666666666666</ele><time>2026-04-02T11:51:46Z</time></trkpt><trkpt lat="43.92954148022341" lon="2.8723017813583613"><ele>588.0</ele><time>2026-04-02T11:51:47Z</time></trkpt><trkpt lat="43.92967598273248" lon="2.8722800175946674"><ele>588.0</ele><time>2026-04-02T11:51:48Z</time></trkpt><trkpt lat="43.92979320902502" lon="2.872397908040499"><ele>588.0</ele><time>2026-04-02T11:51:49Z</time></trkpt><trkpt lat="43.92995242928662" lon="2.872474447754246"><ele>588.0</ele><time>2026-04-02T11:51:50Z</time></trkpt><trkpt lat="43.930123110969994" lon="2.8725319372051237"><ele>589.5</ele><time>2026-04-02T11:51:51Z</time></trkpt><trkpt lat="43.93027742941101" lon="2.8726041609520006"><ele>591.0</ele><time>2026-04-02T11:51:52Z</time></trkpt><trkpt lat="43.930417361012665" lon="2.872642923978006"><ele>592.5</ele><time>2026-04-02T11:51:53Z</time></trkpt><trkpt lat="43.930532792647284" lon="2.872634946155423"><ele>594.0</ele><time>2026-04-02T11:51:54Z</time></trkpt><trkpt lat="43.93063136084554" lon="2.8725661812990695"><ele>594.0</ele><time>2026-04-02T11:51:55Z</time></trkpt><trkpt lat="43.93069096634391" lon="2.8724416475741044"><ele>594.0</ele><time>2026-04-02T11:51:56Z</time></trkpt><trkpt lat="43.93071921678915" lon="2.872283205263152"><ele>594.0</ele><time>2026-04-02T11:51:57Z</time></trkpt><trkpt lat="43.9307784439164" lon="2.8721201536647785"><ele>594.0</ele><time>2026-04-02T11:51:58Z</time></trkpt><trkpt lat="43.930887180835164" lon="2.871956724279191"><ele>596.3333333333334</ele><time>2026-04-02T11:51:59Z</time></trkpt><trkpt lat="43.9310008870608" lon="2.8717697323279507"><ele>598.6666666666667</ele><time>2026-04-02T11:52:00Z</time></trkpt><trkpt lat="43.93110269894916" lon="2.87157759631038"><ele>601.0</ele><time>2026-04-02T11:52:01Z</time></trkpt><trkpt lat="43.931220186408375" lon="2.871385528235807"><ele>601.0</ele><time>2026-04-02T11:52:02Z</time></trkpt><trkpt lat="43.93135664656013" lon="2.8712382131017202"><ele>601.0</ele><time>2026-04-02T11:52:03Z</time></trkpt><trkpt lat="43.931477192881104" lon="2.8711067100029353"><ele>601.0</ele><time>2026-04-02T11:52:04Z</time></trkpt><trkpt lat="43.93159982832991" lon="2.871029646241964"><ele>599.6666666666667</ele><time>2026-04-02T11:52:05Z</time></trkpt><trkpt lat="43.93174964639883" lon="2.870958536098341"><ele>598.3333333333334</ele><time>2026-04-02T11:52:06Z</time></trkpt><trkpt lat="43.931892780377424" lon="2.870834498879689"><ele>597.0</ele><time>2026-04-02T11:52:07Z</time></trkpt><trkpt lat="43.93202738553625" lon="2.870686646904897"><ele>593.75</ele><time>2026-04-02T11:52:08Z</time></trkpt><trkpt lat="43.93214924977009" lon="2.870496519081229"><ele>590.5</ele><time>2026-04-02T11:52:09Z</time></trkpt><trkpt lat="43.93223177516155" lon="2.8703347208151717"><ele>587.25</ele><time>2026-04-02T11:52:10Z</time></trkpt><trkpt lat="43.93230827290204" lon="2.8702414859235206"><ele>584.0</ele><time>2026-04-02T11:52:11Z</time></trkpt><trkpt lat="43.93240249265597" lon="2.8702007898686452"><ele>584.0</ele><time>2026-04-02T11:52:13Z</time></trkpt><trkpt lat="43.93247060988687" lon="2.870309390093784"><ele>584.0</ele><time>2026-04-02T11:52:15Z</time></trkpt><trkpt lat="43.93250994950098" lon="2.8704137139545254"><ele>584.0</ele><time>2026-04-02T11:52:16Z</time></trkpt><trkpt lat="43.93256913232418" lon="2.8705340840500124"><ele>584.0</ele><time>2026-04-02T11:52:17Z</time></trkpt><trkpt lat="43.93264864446261" lon="2.8706589897745514"><ele>584.0</ele><time>2026-04-02T11:52:18Z</time></trkpt><trkpt lat="43.93275219019061" lon="2.8707601291443936"><ele>581.5</ele><time>2026-04-02T11:52:19Z</time></trkpt><trkpt lat="43.93287474880562" lon="2.870840422799306"><ele>579.0</ele><time>2026-04-02T11:52:20Z</time></trkpt><trkpt lat="43.93297630955225" lon="2.87098024297478"><ele>576.5</ele><time>2026-04-02T11:52:21Z</time></trkpt><trkpt lat="43.933044197985154" lon="2.8711687379645343"><ele>574.0</ele><time>2026-04-02T11:52:22Z</time></trkpt><trkpt lat="43.93312639762264" lon="2.871378252438189"><ele>574.0</ele><time>2026-04-02T11:52:23Z</time></trkpt><trkpt lat="43.93322807331675" lon="2.8715788100116866"><ele>574.0</ele><time>2026-04-02T11:52:24Z</time></trkpt><trkpt lat="43.933341868116095" lon="2.8717697690802733"><ele>574.0</ele><time>2026-04-02T11:52:25Z</time></trkpt><trkpt lat="43.93346073631619" lon="2.8719198763038096"><ele>570.8</ele><time>2026-04-02T11:52:26Z</time></trkpt><trkpt lat="43.933551571087264" lon="2.872044767499901"><ele>567.5999999999999</ele><time>2026-04-02T11:52:27Z</time></trkpt><trkpt lat="43.93362433738098" lon="2.8721341672170064"><ele>564.4</ele><time>2026-04-02T11:52:28Z</time></trkpt><trkpt lat="43.93370447979417" lon="2.8721676160912306"><ele>561.1999999999999</ele><time>2026-04-02T11:52:29Z</time></trkpt><trkpt lat="43.93381588302307" lon="2.872134805294236"><ele>558.0</ele><time>2026-04-02T11:52:30Z</time></trkpt><trkpt lat="43.933924174095225" lon="2.872030483332736"><ele>558.0</ele><time>2026-04-02T11:52:31Z</time></trkpt><trkpt lat="43.93402891901062" lon="2.8718809723378675"><ele>558.0</ele><time>2026-04-02T11:52:32Z</time></trkpt><trkpt lat="43.93412080682324" lon="2.8717138080065943"><ele>558.0</ele><time>2026-04-02T11:52:33Z</time></trkpt><trkpt lat="43.934186789220554" lon="2.871540088216965"><ele>558.0</ele><time>2026-04-02T11:52:34Z</time></trkpt><trkpt lat="43.93421062154435" lon="2.871347928761865"><ele>557.6666666666666</ele><time>2026-04-02T11:52:35Z</time></trkpt><trkpt lat="43.93418350568365" lon="2.8711255438587084"><ele>557.3333333333333</ele><time>2026-04-02T11:52:36Z</time></trkpt><trkpt lat="43.93411654629314" lon="2.8709050477175486"><ele>557.0</ele><time>2026-04-02T11:52:37Z</time></trkpt><trkpt lat="43.93401688458561" lon="2.8707077913275163"><ele>556.3333333333333</ele><time>2026-04-02T11:52:38Z</time></trkpt><trkpt lat="43.933910193215524" lon="2.8705252363971376"><ele>555.6666666666666</ele><time>2026-04-02T11:52:39Z</time></trkpt><trkpt lat="43.93380679273512" lon="2.8703712732716644"><ele>555.0</ele><time>2026-04-02T11:52:40Z</time></trkpt><trkpt lat="43.93369263778624" lon="2.870271385264106"><ele>555.0</ele><time>2026-04-02T11:52:41Z</time></trkpt><trkpt lat="43.93357493708059" lon="2.8701964486369325"><ele>555.0</ele><time>2026-04-02T11:52:42Z</time></trkpt><trkpt lat="43.933486549124375" lon="2.87007011145692"><ele>555.0</ele><time>2026-04-02T11:52:43Z</time></trkpt><trkpt lat="43.933390836268174" lon="2.8699573619776806"><ele>555.0</ele><time>2026-04-02T11:52:44Z</time></trkpt><trkpt lat="43.933346145517795" lon="2.8697998088548826"><ele>554.8</ele><time>2026-04-02T11:52:45Z</time></trkpt><trkpt lat="43.933311096307555" lon="2.86965102584415"><ele>554.6</ele><time>2026-04-02T11:52:46Z</time></trkpt><trkpt lat="43.93326932598241" lon="2.869504798792681"><ele>554.4</ele><time>2026-04-02T11:52:47Z</time></trkpt><trkpt lat="43.93324938971254" lon="2.8693519012269273"><ele>554.2</ele><time>2026-04-02T11:52:48Z</time></trkpt><trkpt lat="43.93325103874727" lon="2.8692055113277557"><ele>554.0</ele><time>2026-04-02T11:52:49Z</time></trkpt><trkpt lat="43.93324974858776" lon="2.869063268649735"><ele>554.0</ele><time>2026-04-02T11:52:50Z</time></trkpt><trkpt lat="43.93326221614425" lon="2.868927411892458"><ele>554.0</ele><time>2026-04-02T11:52:51Z</time></trkpt><trkpt lat="43.933335891596805" lon="2.8688236646223397"><ele>554.0</ele><time>2026-04-02T11:52:52Z</time></trkpt><trkpt lat="43.9334273871226" lon="2.86873835117638"><ele>554.0</ele><time>2026-04-02T11:52:53Z</time></trkpt><trkpt lat="43.93356714106105" lon="2.8687571083240755"><ele>551.0</ele><time>2026-04-02T11:52:54Z</time></trkpt><trkpt lat="43.933684114575144" lon="2.8686928114648063"><ele>548.0</ele><time>2026-04-02T11:52:55Z</time></trkpt><trkpt lat="43.933789677334396" lon="2.8685757116486292"><ele>545.0</ele><time>2026-04-02T11:52:56Z</time></trkpt><trkpt lat="43.93384825315994" lon="2.8683853330839524"><ele>542.0</ele><time>2026-04-02T11:52:57Z</time></trkpt><trkpt lat="43.93393357600967" lon="2.8682697045048355"><ele>542.0</ele><time>2026-04-02T11:52:58Z</time></trkpt><trkpt lat="43.93406429991566" lon="2.86829915796733"><ele>542.0</ele><time>2026-04-02T11:52:59Z</time></trkpt><trkpt lat="43.93423250483597" lon="2.868288721503059"><ele>542.0</ele><time>2026-04-02T11:53:00Z</time></trkpt><trkpt lat="43.93442045151509" lon="2.8682959898099996"><ele>536.6666666666666</ele><time>2026-04-02T11:53:01Z</time></trkpt><trkpt lat="43.93461613352483" lon="2.8682372805778007"><ele>531.3333333333334</ele><time>2026-04-02T11:53:02Z</time></trkpt><trkpt lat="43.934782889944486" lon="2.868191666936649"><ele>526.0</ele><time>2026-04-02T11:53:03Z</time></trkpt><trkpt lat="43.93492361833144" lon="2.868174239661918"><ele>526.0</ele><time>2026-04-02T11:53:04Z</time></trkpt><trkpt lat="43.93502186594611" lon="2.8681406667143468"><ele>526.0</ele><time>2026-04-02T11:53:05Z</time></trkpt><trkpt lat="43.935075880833104" lon="2.8680674178558467"><ele>526.0</ele><time>2026-04-02T11:53:06Z</time></trkpt><trkpt lat="43.93508850627907" lon="2.8679454953835672"><ele>526.0</ele><time>2026-04-02T11:53:07Z</time></trkpt><trkpt lat="43.93506644481432" lon="2.867817187665271"><ele>526.0</ele><time>2026-04-02T11:53:08Z</time></trkpt><trkpt lat="43.93511819734029" lon="2.867731439936693"><ele>526.0</ele><time>2026-04-02T11:53:10Z</time></trkpt><trkpt lat="43.93517722664256" lon="2.8678015510982986"><ele>526.0</ele><time>2026-04-02T11:53:11Z</time></trkpt><trkpt lat="43.93518723594358" lon="2.867935806113618"><ele>526.0</ele><time>2026-04-02T11:53:12Z</time></trkpt><trkpt lat="43.935229268565394" lon="2.8680733172532227"><ele>526.0</ele><time>2026-04-02T11:53:13Z</time></trkpt><trkpt lat="43.93520442741883" lon="2.868210711279658"><ele>526.0</ele><time>2026-04-02T11:53:14Z</time></trkpt><trkpt lat="43.9351307485835" lon="2.8683032988560915"><ele>526.0</ele><time>2026-04-02T11:53:15Z</time></trkpt><trkpt lat="43.935027458207195" lon="2.8683309336237586"><ele>526.0</ele><time>2026-04-02T11:53:16Z</time></trkpt><trkpt lat="43.934940049137964" lon="2.8684134426872294"><ele>526.0</ele><time>2026-04-02T11:53:17Z</time></trkpt><trkpt lat="43.934824700455685" lon="2.8684683267693103"><ele>526.0</ele><time>2026-04-02T11:53:18Z</time></trkpt><trkpt lat="43.93471505853949" lon="2.868575041318761"><ele>526.0</ele><time>2026-04-02T11:53:19Z</time></trkpt><trkpt lat="43.93461067759136" lon="2.8686798759208494"><ele>524.0</ele><time>2026-04-02T11:53:20Z</time></trkpt><trkpt lat="43.934539762548155" lon="2.8687831758369473"><ele>522.0</ele><time>2026-04-02T11:53:21Z</time></trkpt><trkpt lat="43.934490745020426" lon="2.8688665520862173"><ele>520.0</ele><time>2026-04-02T11:53:22Z</time></trkpt><trkpt lat="43.934456716744975" lon="2.8689502388513066"><ele>518.0</ele><time>2026-04-02T11:53:23Z</time></trkpt><trkpt lat="43.93451468440595" lon="2.86908838855991"><ele>516.0</ele><time>2026-04-02T11:53:24Z</time></trkpt><trkpt lat="43.93465859188752" lon="2.8691530288965486"><ele>516.0</ele><time>2026-04-02T11:53:25Z</time></trkpt><trkpt lat="43.93478590187168" lon="2.8692399073839434"><ele>516.0</ele><time>2026-04-02T11:53:26Z</time></trkpt><trkpt lat="43.9348867924431" lon="2.869377468726451"><ele>516.0</ele><time>2026-04-02T11:53:27Z</time></trkpt><trkpt lat="43.9349956072601" lon="2.86952014037514"><ele>516.0</ele><time>2026-04-02T11:53:28Z</time></trkpt><trkpt lat="43.935083488842515" lon="2.8696395992787975"><ele>510.25</ele><time>2026-04-02T11:53:29Z</time></trkpt><trkpt lat="43.9351617781309" lon="2.869746935741456"><ele>504.5</ele><time>2026-04-02T11:53:30Z</time></trkpt><trkpt lat="43.9351661897482" lon="2.869909562616426"><ele>498.75</ele><time>2026-04-02T11:53:31Z</time></trkpt><trkpt lat="43.93513650293926" lon="2.8700870188299983"><ele>493.0</ele><time>2026-04-02T11:53:32Z</time></trkpt><trkpt lat="43.93516856851804" lon="2.8702912389161432"><ele>493.0</ele><time>2026-04-02T11:53:33Z</time></trkpt><trkpt lat="43.93519525258417" lon="2.870523399002162"><ele>493.0</ele><time>2026-04-02T11:53:34Z</time></trkpt><trkpt lat="43.93522828631717" lon="2.870739165280629"><ele>493.0</ele><time>2026-04-02T11:53:35Z</time></trkpt><trkpt lat="43.93525750172791" lon="2.8709305226412627"><ele>499.0</ele><time>2026-04-02T11:53:36Z</time></trkpt><trkpt lat="43.93528639744692" lon="2.8710868512497583"><ele>504.99999999999994</ele><time>2026-04-02T11:53:37Z</time></trkpt><trkpt lat="43.93531034381649" lon="2.871219118694748"><ele>510.99999999999994</ele><time>2026-04-02T11:53:38Z</time></trkpt><trkpt lat="43.93536753486585" lon="2.871325462288887"><ele>517.0</ele><time>2026-04-02T11:53:39Z</time></trkpt><trkpt lat="43.93547016545412" lon="2.8713821464097"><ele>523.0</ele><time>2026-04-02T11:53:40Z</time></trkpt><trkpt lat="43.93559832222577" lon="2.8713601520603866"><ele>523.0</ele><time>2026-04-02T11:53:41Z</time></trkpt><trkpt lat="43.9357155602557" lon="2.8712620340877115"><ele>523.0</ele><time>2026-04-02T11:53:42Z</time></trkpt><trkpt lat="43.935835819271176" lon="2.8711471089718907"><ele>523.0</ele><time>2026-04-02T11:53:43Z</time></trkpt><trkpt lat="43.93596542451247" lon="2.871014095705439"><ele>523.0</ele><time>2026-04-02T11:53:44Z</time></trkpt><trkpt lat="43.93610114528237" lon="2.8708862118031453"><ele>516.0</ele><time>2026-04-02T11:53:45Z</time></trkpt><trkpt lat="43.9362345708753" lon="2.8707656584965515"><ele>509.0</ele><time>2026-04-02T11:53:46Z</time></trkpt><trkpt lat="43.93636089766338" lon="2.870658975431018"><ele>502.0</ele><time>2026-04-02T11:53:47Z</time></trkpt><trkpt lat="43.93650516978568" lon="2.870618883806644"><ele>502.0</ele><time>2026-04-02T11:53:48Z</time></trkpt><trkpt lat="43.93664050288478" lon="2.870550796015587"><ele>502.0</ele><time>2026-04-02T11:53:49Z</time></trkpt><trkpt lat="43.93676279341338" lon="2.8704652289763204"><ele>502.0</ele><time>2026-04-02T11:53:50Z</time></trkpt><trkpt lat="43.936888109135005" lon="2.8703933404329587"><ele>502.0</ele><time>2026-04-02T11:53:51Z</time></trkpt><trkpt lat="43.937015053200575" lon="2.8703310016214374"><ele>504.5</ele><time>2026-04-02T11:53:52Z</time></trkpt><trkpt lat="43.93713939132929" lon="2.8702704513191044"><ele>507.0</ele><time>2026-04-02T11:53:53Z</time></trkpt><trkpt lat="43.93726590784301" lon="2.8702132326411802"><ele>509.5</ele><time>2026-04-02T11:53:54Z</time></trkpt><trkpt lat="43.93740090901097" lon="2.8701724136028557"><ele>512.0</ele><time>2026-04-02T11:53:55Z</time></trkpt><trkpt lat="43.93754027276438" lon="2.870144855630925"><ele>508.0</ele><time>2026-04-02T11:53:56Z</time></trkpt><trkpt lat="43.93768692701571" lon="2.870163064589456"><ele>504.0</ele><time>2026-04-02T11:53:57Z</time></trkpt><trkpt lat="43.93783090026771" lon="2.87019659989558"><ele>500.0</ele><time>2026-04-02T11:53:58Z</time></trkpt><trkpt lat="43.93797613455457" lon="2.8702408846177283"><ele>496.0</ele><time>2026-04-02T11:53:59Z</time></trkpt><trkpt lat="43.93812037456023" lon="2.870285299399868"><ele>496.0</ele><time>2026-04-02T11:54:00Z</time></trkpt><trkpt lat="43.938260313548426" lon="2.8703287698183706"><ele>496.0</ele><time>2026-04-02T11:54:01Z</time></trkpt><trkpt lat="43.938383355857184" lon="2.87043456700661"><ele>496.0</ele><time>2026-04-02T11:54:02Z</time></trkpt><trkpt lat="43.93852118810105" lon="2.870506073975216"><ele>496.0</ele><time>2026-04-02T11:54:03Z</time></trkpt><trkpt lat="43.938653416836694" lon="2.870571549319193"><ele>491.5</ele><time>2026-04-02T11:54:04Z</time></trkpt><trkpt lat="43.93879926460441" lon="2.8705792181739387"><ele>487.0</ele><time>2026-04-02T11:54:05Z</time></trkpt><trkpt lat="43.93894999476779" lon="2.8705554649882967"><ele>482.5</ele><time>2026-04-02T11:54:06Z</time></trkpt><trkpt lat="43.9391002635396" lon="2.870533481831674"><ele>478.0</ele><time>2026-04-02T11:54:07Z</time></trkpt><trkpt lat="43.93925355287754" lon="2.87053565018476"><ele>473.0</ele><time>2026-04-02T11:54:08Z</time></trkpt><trkpt lat="43.9394013946702" lon="2.8705679691156933"><ele>468.0</ele><time>2026-04-02T11:54:09Z</time></trkpt><trkpt lat="43.93953110744882" lon="2.870643959343582"><ele>463.0</ele><time>2026-04-02T11:54:10Z</time></trkpt><trkpt lat="43.939654696828605" lon="2.8707205244638043"><ele>458.0</ele><time>2026-04-02T11:54:11Z</time></trkpt><trkpt lat="43.93978039825333" lon="2.8708208853077193"><ele>458.0</ele><time>2026-04-02T11:54:12Z</time></trkpt><trkpt lat="43.939922764068214" lon="2.8708920714367787"><ele>458.0</ele><time>2026-04-02T11:54:13Z</time></trkpt><trkpt lat="43.940077017365475" lon="2.8709524450490025"><ele>458.0</ele><time>2026-04-02T11:54:14Z</time></trkpt><trkpt lat="43.940224828596115" lon="2.870980142146931"><ele>459.5</ele><time>2026-04-02T11:54:15Z</time></trkpt><trkpt lat="43.94036666000868" lon="2.8710187077204914"><ele>461.0</ele><time>2026-04-02T11:54:16Z</time></trkpt><trkpt lat="43.940494531079096" lon="2.8710734696656397"><ele>462.5</ele><time>2026-04-02T11:54:17Z</time></trkpt><trkpt lat="43.940617759654195" lon="2.8711369702354936"><ele>464.0</ele><time>2026-04-02T11:54:18Z</time></trkpt><trkpt lat="43.94073668814664" lon="2.8712031508645133"><ele>464.0</ele><time>2026-04-02T11:54:19Z</time></trkpt><trkpt lat="43.940847202763784" lon="2.871278352114227"><ele>464.0</ele><time>2026-04-02T11:54:20Z</time></trkpt><trkpt lat="43.940961605707564" lon="2.8713376844305554"><ele>464.0</ele><time>2026-04-02T11:54:21Z</time></trkpt><trkpt lat="43.941077644639876" lon="2.8714055639334974"><ele>464.0</ele><time>2026-04-02T11:54:22Z</time></trkpt><trkpt lat="43.94120439486673" lon="2.8714837023281894"><ele>460.5</ele><time>2026-04-02T11:54:23Z</time></trkpt><trkpt lat="43.941331695702054" lon="2.8715670900687247"><ele>457.0</ele><time>2026-04-02T11:54:24Z</time></trkpt><trkpt lat="43.9414496313343" lon="2.871653026272487"><ele>453.5</ele><time>2026-04-02T11:54:25Z</time></trkpt><trkpt lat="43.941529860440816" lon="2.8717901742829954"><ele>450.0</ele><time>2026-04-02T11:54:26Z</time></trkpt><trkpt lat="43.94158075175766" lon="2.87193163173957"><ele>450.0</ele><time>2026-04-02T11:54:27Z</time></trkpt><trkpt lat="43.9415881929376" lon="2.872099866398018"><ele>450.0</ele><time>2026-04-02T11:54:28Z</time></trkpt><trkpt lat="43.94159125115739" lon="2.8723134355718654"><ele>450.0</ele><time>2026-04-02T11:54:29Z</time></trkpt><trkpt lat="43.94159846559082" lon="2.872531766862956"><ele>450.0</ele><time>2026-04-02T11:54:30Z</time></trkpt><trkpt lat="43.94159214219486" lon="2.8727344046868706"><ele>449.0</ele><time>2026-04-02T11:54:31Z</time></trkpt><trkpt lat="43.941594989460484" lon="2.8729171084127425"><ele>448.0</ele><time>2026-04-02T11:54:32Z</time></trkpt><trkpt lat="43.941620579147454" lon="2.873066434751084"><ele>447.0</ele><time>2026-04-02T11:54:33Z</time></trkpt><trkpt lat="43.94169304423522" lon="2.8731655918561865"><ele>446.0</ele><time>2026-04-02T11:54:34Z</time></trkpt><trkpt lat="43.94181402890093" lon="2.8731954322992737"><ele>446.0</ele><time>2026-04-02T11:54:35Z</time></trkpt><trkpt lat="43.94196823097747" lon="2.873166507783889"><ele>446.0</ele><time>2026-04-02T11:54:36Z</time></trkpt><trkpt lat="43.94213278740138" lon="2.873123023101927"><ele>446.0</ele><time>2026-04-02T11:54:37Z</time></trkpt><trkpt lat="43.94228956938173" lon="2.8731339219976224"><ele>446.0</ele><time>2026-04-02T11:54:38Z</time></trkpt><trkpt lat="43.94242622549744" lon="2.8731469249622323"><ele>446.0</ele><time>2026-04-02T11:54:39Z</time></trkpt><trkpt lat="43.94254653750083" lon="2.873181283502942"><ele>446.0</ele><time>2026-04-02T11:54:40Z</time></trkpt><trkpt lat="43.94263025058525" lon="2.873305548018841"><ele>446.0</ele><time>2026-04-02T11:54:41Z</time></trkpt><trkpt lat="43.94270299537952" lon="2.8734555671871678"><ele>443.75</ele><time>2026-04-02T11:54:42Z</time></trkpt><trkpt lat="43.94277810852019" lon="2.8735599443910864"><ele>441.5</ele><time>2026-04-02T11:54:43Z</time></trkpt><trkpt lat="43.94289307810292" lon="2.8735730856658"><ele>439.25</ele><time>2026-04-02T11:54:44Z</time></trkpt><trkpt lat="43.943017913555195" lon="2.873519090786657"><ele>437.0</ele><time>2026-04-02T11:54:45Z</time></trkpt><trkpt lat="43.943145328452296" lon="2.8734246161330788"><ele>437.0</ele><time>2026-04-02T11:54:46Z</time></trkpt><trkpt lat="43.94328012353417" lon="2.8733555842597953"><ele>437.0</ele><time>2026-04-02T11:54:47Z</time></trkpt><trkpt lat="43.943413335558716" lon="2.8733955610877215"><ele>437.0</ele><time>2026-04-02T11:54:48Z</time></trkpt><trkpt lat="43.94351933459183" lon="2.8734824757166413"><ele>437.0</ele><time>2026-04-02T11:54:49Z</time></trkpt><trkpt lat="43.94360409241051" lon="2.8736153759915752"><ele>440.0</ele><time>2026-04-02T11:54:50Z</time></trkpt><trkpt lat="43.9437272998817" lon="2.8737812686017925"><ele>443.0</ele><time>2026-04-02T11:54:51Z</time></trkpt><trkpt lat="43.94385241793901" lon="2.8739464053239465"><ele>446.0</ele><time>2026-04-02T11:54:52Z</time></trkpt><trkpt lat="43.94396672776856" lon="2.874059991815048"><ele>446.0</ele><time>2026-04-02T11:54:53Z</time></trkpt><trkpt lat="43.944064609608176" lon="2.8741461821051892"><ele>446.0</ele><time>2026-04-02T11:54:54Z</time></trkpt><trkpt lat="43.94417277260975" lon="2.874148316644544"><ele>446.0</ele><time>2026-04-02T11:54:55Z</time></trkpt><trkpt lat="43.94430123354807" lon="2.8740830029575433"><ele>446.0</ele><time>2026-04-02T11:54:56Z</time></trkpt><trkpt lat="43.94441572548278" lon="2.8740281704175565"><ele>446.8333333333333</ele><time>2026-04-02T11:54:57Z</time></trkpt><trkpt lat="43.9444914182576" lon="2.8740430423134256"><ele>447.66666666666663</ele><time>2026-04-02T11:54:58Z</time></trkpt><trkpt lat="43.944548579208586" lon="2.874090375851205"><ele>448.5</ele><time>2026-04-02T11:54:59Z</time></trkpt><trkpt lat="43.94459901016562" lon="2.8741620797508256"><ele>449.33333333333337</ele><time>2026-04-02T11:55:00Z</time></trkpt><trkpt lat="43.944648635852886" lon="2.8742482918673797"><ele>450.1666666666667</ele><time>2026-04-02T11:55:01Z</time></trkpt><trkpt lat="43.94470104787454" lon="2.8743665079070118"><ele>451.0</ele><time>2026-04-02T11:55:02Z</time></trkpt><trkpt lat="43.9447695245933" lon="2.87451164162629"><ele>451.0</ele><time>2026-04-02T11:55:03Z</time></trkpt><trkpt lat="43.944838794791565" lon="2.8746671936824426"><ele>451.0</ele><time>2026-04-02T11:55:04Z</time></trkpt><trkpt lat="43.944920893415" lon="2.8748085590556487"><ele>451.0</ele><time>2026-04-02T11:55:05Z</time></trkpt><trkpt lat="43.945017898995" lon="2.8749192714976397"><ele>451.0</ele><time>2026-04-02T11:55:06Z</time></trkpt><trkpt lat="43.945127410023446" lon="2.874985934764178"><ele>450.5</ele><time>2026-04-02T11:55:07Z</time></trkpt><trkpt lat="43.94525902590996" lon="2.8749934621612496"><ele>450.0</ele><time>2026-04-02T11:55:08Z</time></trkpt><trkpt lat="43.94539884364793" lon="2.8749343049411133"><ele>449.5</ele><time>2026-04-02T11:55:09Z</time></trkpt><trkpt lat="43.94552522973408" lon="2.874812452420331"><ele>449.0</ele><time>2026-04-02T11:55:10Z</time></trkpt><trkpt lat="43.94565578128421" lon="2.874694647108919"><ele>449.0</ele><time>2026-04-02T11:55:11Z</time></trkpt><trkpt lat="43.945778633060264" lon="2.874612921105999"><ele>449.0</ele><time>2026-04-02T11:55:12Z</time></trkpt><trkpt lat="43.94589938063404" lon="2.874596436984412"><ele>449.0</ele><time>2026-04-02T11:55:13Z</time></trkpt><trkpt lat="43.94600107018975" lon="2.8745826036556132"><ele>449.0</ele><time>2026-04-02T11:55:14Z</time></trkpt><trkpt lat="43.94611117042433" lon="2.874579416554756"><ele>447.66666666666663</ele><time>2026-04-02T11:55:15Z</time></trkpt><trkpt lat="43.94626430528138" lon="2.874659243420436"><ele>446.33333333333337</ele><time>2026-04-02T11:55:16Z</time></trkpt><trkpt lat="43.946449164349794" lon="2.8746849114392785"><ele>445.0</ele><time>2026-04-02T11:55:17Z</time></trkpt><trkpt lat="43.94664230607204" lon="2.874732146207468"><ele>438.6666666666667</ele><time>2026-04-02T11:55:18Z</time></trkpt><trkpt lat="43.946815251246626" lon="2.8747596153962505"><ele>432.33333333333337</ele><time>2026-04-02T11:55:19Z</time></trkpt><trkpt lat="43.94697045831007" lon="2.8747931703690814"><ele>426.0</ele><time>2026-04-02T11:55:20Z</time></trkpt><trkpt lat="43.94710892255025" lon="2.874840965180955"><ele>426.0</ele><time>2026-04-02T11:55:21Z</time></trkpt><trkpt lat="43.947225308463544" lon="2.874924243315392"><ele>426.0</ele><time>2026-04-02T11:55:22Z</time></trkpt><trkpt lat="43.947285370419294" lon="2.875097971351798"><ele>426.0</ele><time>2026-04-02T11:55:23Z</time></trkpt><trkpt lat="43.94737815885934" lon="2.8752931887405753"><ele>426.0</ele><time>2026-04-02T11:55:24Z</time></trkpt><trkpt lat="43.94748543635768" lon="2.8755205437884106"><ele>427.66666666666663</ele><time>2026-04-02T11:55:25Z</time></trkpt><trkpt lat="43.947561190683075" lon="2.87572505259241"><ele>429.3333333333333</ele><time>2026-04-02T11:55:26Z</time></trkpt><trkpt lat="43.94760929590943" lon="2.8759301107224413"><ele>431.0</ele><time>2026-04-02T11:55:27Z</time></trkpt><trkpt lat="43.94765617716434" lon="2.8761331845282037"><ele>431.0</ele><time>2026-04-02T11:55:28Z</time></trkpt><trkpt lat="43.947721753656076" lon="2.8762919304630588"><ele>431.0</ele><time>2026-04-02T11:55:29Z</time></trkpt><trkpt lat="43.94777791193441" lon="2.876403000831767"><ele>431.0</ele><time>2026-04-02T11:55:30Z</time></trkpt><trkpt lat="43.947870422563135" lon="2.876461327569948"><ele>431.0</ele><time>2026-04-02T11:55:31Z</time></trkpt><trkpt lat="43.94798909977042" lon="2.876481422250782"><ele>431.0</ele><time>2026-04-02T11:55:32Z</time></trkpt><trkpt lat="43.948134128240596" lon="2.876508811795146"><ele>431.0</ele><time>2026-04-02T11:55:33Z</time></trkpt><trkpt lat="43.94829057961736" lon="2.876553457955947"><ele>431.0</ele><time>2026-04-02T11:55:34Z</time></trkpt><trkpt lat="43.948447873526995" lon="2.876596217566365"><ele>430.0</ele><time>2026-04-02T11:55:35Z</time></trkpt><trkpt lat="43.94859044565347" lon="2.8766246374129913"><ele>429.0</ele><time>2026-04-02T11:55:36Z</time></trkpt><trkpt lat="43.948724433407946" lon="2.8766329708136444"><ele>428.0</ele><time>2026-04-02T11:55:37Z</time></trkpt><trkpt lat="43.94885074388409" lon="2.8766117091621046"><ele>427.0</ele><time>2026-04-02T11:55:38Z</time></trkpt><trkpt lat="43.94896734185562" lon="2.87655180224213"><ele>427.0</ele><time>2026-04-02T11:55:39Z</time></trkpt><trkpt lat="43.94907402695406" lon="2.8764822512476975"><ele>427.00000000000006</ele><time>2026-04-02T11:55:40Z</time></trkpt><trkpt lat="43.94917766527463" lon="2.876428454322309"><ele>427.00000000000006</ele><time>2026-04-02T11:55:41Z</time></trkpt><trkpt lat="43.94928037648495" lon="2.876383021134908"><ele>427.0</ele><time>2026-04-02T11:55:42Z</time></trkpt><trkpt lat="43.949382104128794" lon="2.8763528571659656"><ele>427.0</ele><time>2026-04-02T11:55:43Z</time></trkpt><trkpt lat="43.949485905205556" lon="2.8763447206460797"><ele>424.40000000000003</ele><time>2026-04-02T11:55:44Z</time></trkpt><trkpt lat="43.94957504433473" lon="2.8764132500519937"><ele>421.80000000000007</ele><time>2026-04-02T11:55:45Z</time></trkpt><trkpt lat="43.94964527285668" lon="2.876476180237834"><ele>419.2</ele><time>2026-04-02T11:55:46Z</time></trkpt><trkpt lat="43.949650066973796" lon="2.876615371576025"><ele>416.6</ele><time>2026-04-02T11:55:47Z</time></trkpt><trkpt lat="43.94966517024932" lon="2.8767407933646303"><ele>414.0</ele><time>2026-04-02T11:55:48Z</time></trkpt><trkpt lat="43.94966018587081" lon="2.8768497023099036"><ele>414.0</ele><time>2026-04-02T11:55:49Z</time></trkpt><trkpt lat="43.949672352792554" lon="2.876972848417889"><ele>414.0</ele><time>2026-04-02T11:55:50Z</time></trkpt><trkpt lat="43.94968990098371" lon="2.877087061346221"><ele>414.0</ele><time>2026-04-02T11:55:51Z</time></trkpt><trkpt lat="43.94972691977932" lon="2.8771890091714543"><ele>414.0</ele><time>2026-04-02T11:55:52Z</time></trkpt><trkpt lat="43.9497365602204" lon="2.8773007211192905"><ele>414.0</ele><time>2026-04-02T11:55:53Z</time></trkpt><trkpt lat="43.949770375988685" lon="2.8774028851162123"><ele>414.0</ele><time>2026-04-02T11:55:54Z</time></trkpt><trkpt lat="43.94982077637941" lon="2.8775003958260905"><ele>414.0</ele><time>2026-04-02T11:55:55Z</time></trkpt><trkpt lat="43.94989883184828" lon="2.8775545738609383"><ele>414.0</ele><time>2026-04-02T11:55:56Z</time></trkpt><trkpt lat="43.9499604177243" lon="2.8776185105484053"><ele>414.0</ele><time>2026-04-02T11:55:57Z</time></trkpt><trkpt lat="43.950029651748295" lon="2.877689215239168"><ele>414.0</ele><time>2026-04-02T11:55:58Z</time></trkpt><trkpt lat="43.95010202398641" lon="2.8777720441443915"><ele>414.0</ele><time>2026-04-02T11:55:59Z</time></trkpt><trkpt lat="43.95013562119188" lon="2.8778591880140465"><ele>414.0</ele><time>2026-04-02T11:56:00Z</time></trkpt><trkpt lat="43.950195561340266" lon="2.877941213655408"><ele>412.5</ele><time>2026-04-02T11:56:01Z</time></trkpt><trkpt lat="43.950257553160895" lon="2.8780234900770125"><ele>411.0</ele><time>2026-04-02T11:56:02Z</time></trkpt><trkpt lat="43.950310869515704" lon="2.878071431707957"><ele>409.5</ele><time>2026-04-02T11:56:03Z</time></trkpt><trkpt lat="43.950364808364284" lon="2.8781361284026206"><ele>408.0</ele><time>2026-04-02T11:56:04Z</time></trkpt><trkpt lat="43.95041656525224" lon="2.8781869205781603"><ele>406.5</ele><time>2026-04-02T11:56:05Z</time></trkpt><trkpt lat="43.95047428550971" lon="2.8782410845751274"><ele>405.0</ele><time>2026-04-02T11:56:07Z</time></trkpt><trkpt lat="43.9505723846912" lon="2.878334691310046"><ele>405.0</ele><time>2026-04-02T11:56:09Z</time></trkpt><trkpt lat="43.95062613156218" lon="2.8783833603930855"><ele>405.0</ele><time>2026-04-02T11:56:10Z</time></trkpt><trkpt lat="43.95068738747604" lon="2.8784378479027146"><ele>405.0</ele><time>2026-04-02T11:56:11Z</time></trkpt><trkpt lat="43.95076271301382" lon="2.878481361779975"><ele>405.0</ele><time>2026-04-02T11:56:12Z</time></trkpt><trkpt lat="43.95084073594862" lon="2.8785117140355125"><ele>405.0</ele><time>2026-04-02T11:56:13Z</time></trkpt><trkpt lat="43.95093688483875" lon="2.8784668914108713"><ele>405.0</ele><time>2026-04-02T11:56:14Z</time></trkpt><trkpt lat="43.951061816747284" lon="2.878427889981929"><ele>404.25</ele><time>2026-04-02T11:56:15Z</time></trkpt><trkpt lat="43.95119650216023" lon="2.878384991173379"><ele>403.5</ele><time>2026-04-02T11:56:16Z</time></trkpt><trkpt lat="43.95133029934729" lon="2.8783318133165374"><ele>402.75</ele><time>2026-04-02T11:56:17Z</time></trkpt><trkpt lat="43.951459163413986" lon="2.8782644021915518"><ele>402.0</ele><time>2026-04-02T11:56:18Z</time></trkpt><trkpt lat="43.9515767799376" lon="2.8782104592389595"><ele>402.0</ele><time>2026-04-02T11:56:19Z</time></trkpt><trkpt lat="43.95168329650101" lon="2.878163495370458"><ele>402.0</ele><time>2026-04-02T11:56:20Z</time></trkpt><trkpt lat="43.95178374705789" lon="2.8781578872581997"><ele>402.0</ele><time>2026-04-02T11:56:21Z</time></trkpt><trkpt lat="43.95202403129135" lon="2.8781879251899496"><ele>401.8333333333333</ele><time>2026-04-02T11:56:23Z</time></trkpt><trkpt lat="43.9521358332528" lon="2.8782142905391583"><ele>401.66666666666663</ele><time>2026-04-02T11:56:24Z</time></trkpt><trkpt lat="43.95220722226498" lon="2.8782337742994617"><ele>401.5</ele><time>2026-04-02T11:56:25Z</time></trkpt><trkpt lat="43.95225094686052" lon="2.8782985263542353"><ele>401.3333333333333</ele><time>2026-04-02T11:56:26Z</time></trkpt><trkpt lat="43.952244703982466" lon="2.878408520643282"><ele>401.16666666666663</ele><time>2026-04-02T11:56:27Z</time></trkpt><trkpt lat="43.95216636514323" lon="2.8785084817930664"><ele>401.0</ele><time>2026-04-02T11:56:28Z</time></trkpt><trkpt lat="43.952064804597555" lon="2.878576079302998"><ele>398.3333333333333</ele><time>2026-04-02T11:56:29Z</time></trkpt><trkpt lat="43.95192804579819" lon="2.878696965981715"><ele>395.66666666666663</ele><time>2026-04-02T11:56:30Z</time></trkpt><trkpt lat="43.951780778046405" lon="2.878842906497498"><ele>393.0</ele><time>2026-04-02T11:56:31Z</time></trkpt><trkpt lat="43.95164955923522" lon="2.878969279711641"><ele>393.0</ele><time>2026-04-02T11:56:32Z</time></trkpt><trkpt lat="43.95153046802368" lon="2.8790883057382204"><ele>393.0</ele><time>2026-04-02T11:56:33Z</time></trkpt><trkpt lat="43.951414552177916" lon="2.8792044722236785"><ele>393.0</ele><time>2026-04-02T11:56:34Z</time></trkpt><trkpt lat="43.95130908449802" lon="2.87933227725293"><ele>393.0</ele><time>2026-04-02T11:56:35Z</time></trkpt><trkpt lat="43.95123133418322" lon="2.8794887245222625"><ele>390.25</ele><time>2026-04-02T11:56:36Z</time></trkpt><trkpt lat="43.951193146445625" lon="2.8796742005617277"><ele>387.5</ele><time>2026-04-02T11:56:37Z</time></trkpt><trkpt lat="43.95118933180117" lon="2.8798738023254926"><ele>384.75</ele><time>2026-04-02T11:56:38Z</time></trkpt><trkpt lat="43.951204108247076" lon="2.8800772355018136"><ele>382.0</ele><time>2026-04-02T11:56:39Z</time></trkpt><trkpt lat="43.951234413136355" lon="2.880293992617462"><ele>379.5</ele><time>2026-04-02T11:56:40Z</time></trkpt><trkpt lat="43.95126228173925" lon="2.880493438203023"><ele>377.0</ele><time>2026-04-02T11:56:41Z</time></trkpt><trkpt lat="43.951286105956086" lon="2.8806730156311025"><ele>374.5</ele><time>2026-04-02T11:56:42Z</time></trkpt><trkpt lat="43.95127527298082" lon="2.8808242639381074"><ele>372.0</ele><time>2026-04-02T11:56:43Z</time></trkpt><trkpt lat="43.9512541456734" lon="2.8809426537295177"><ele>369.75</ele><time>2026-04-02T11:56:44Z</time></trkpt><trkpt lat="43.95118573916102" lon="2.8810368969862346"><ele>367.5</ele><time>2026-04-02T11:56:45Z</time></trkpt><trkpt lat="43.95110112080783" lon="2.8811665817118186"><ele>365.25</ele><time>2026-04-02T11:56:46Z</time></trkpt><trkpt lat="43.95103041313729" lon="2.881314733290582"><ele>363.0</ele><time>2026-04-02T11:56:47Z</time></trkpt><trkpt lat="43.95096794162211" lon="2.881438411155357"><ele>363.0</ele><time>2026-04-02T11:56:48Z</time></trkpt><trkpt lat="43.950927000080576" lon="2.8815437236111294"><ele>363.0</ele><time>2026-04-02T11:56:49Z</time></trkpt><trkpt lat="43.95090972674404" lon="2.881636040437392"><ele>363.0</ele><time>2026-04-02T11:56:50Z</time></trkpt><trkpt lat="43.95094750529578" lon="2.88172312027977"><ele>363.0</ele><time>2026-04-02T11:56:51Z</time></trkpt><trkpt lat="43.95110635630006" lon="2.881705608948749"><ele>363.0</ele><time>2026-04-02T11:56:53Z</time></trkpt><trkpt lat="43.951174049523864" lon="2.8815995412800537"><ele>363.0</ele><time>2026-04-02T11:56:54Z</time></trkpt><trkpt lat="43.95125277665435" lon="2.88146761320507"><ele>363.0</ele><time>2026-04-02T11:56:55Z</time></trkpt><trkpt lat="43.95135724278433" lon="2.881349240403485"><ele>363.0</ele><time>2026-04-02T11:56:56Z</time></trkpt><trkpt lat="43.951487271841536" lon="2.881307491081897"><ele>363.0</ele><time>2026-04-02T11:56:57Z</time></trkpt><trkpt lat="43.951612099705315" lon="2.881299967651289"><ele>361.0</ele><time>2026-04-02T11:56:58Z</time></trkpt><trkpt lat="43.95173500001026" lon="2.8812717158487624"><ele>359.0</ele><time>2026-04-02T11:56:59Z</time></trkpt><trkpt lat="43.95184630734321" lon="2.8812739343887355"><ele>357.0</ele><time>2026-04-02T11:57:00Z</time></trkpt><trkpt lat="43.951950243067834" lon="2.881242133920842"><ele>355.0</ele><time>2026-04-02T11:57:01Z</time></trkpt><trkpt lat="43.95203471360984" lon="2.881172821578523"><ele>353.0</ele><time>2026-04-02T11:57:02Z</time></trkpt><trkpt lat="43.95210033589497" lon="2.8810760835231877"><ele>353.0</ele><time>2026-04-02T11:57:03Z</time></trkpt><trkpt lat="43.95212555707451" lon="2.8809397449967262"><ele>353.0</ele><time>2026-04-02T11:57:04Z</time></trkpt><trkpt lat="43.95212871115088" lon="2.880808717243171"><ele>353.0</ele><time>2026-04-02T11:57:05Z</time></trkpt><trkpt lat="43.952166835939344" lon="2.880687839719446"><ele>353.0</ele><time>2026-04-02T11:57:06Z</time></trkpt><trkpt lat="43.95223968748715" lon="2.880597690810877"><ele>353.0</ele><time>2026-04-02T11:57:07Z</time></trkpt><trkpt lat="43.95233124286108" lon="2.8805747604014686"><ele>352.4</ele><time>2026-04-02T11:57:08Z</time></trkpt><trkpt lat="43.95241480984501" lon="2.88065389682027"><ele>351.79999999999995</ele><time>2026-04-02T11:57:09Z</time></trkpt><trkpt lat="43.95251432261684" lon="2.880677914291075"><ele>351.2</ele><time>2026-04-02T11:57:10Z</time></trkpt><trkpt lat="43.95262204708404" lon="2.8807317504331262"><ele>350.6</ele><time>2026-04-02T11:57:11Z</time></trkpt><trkpt lat="43.95274593367582" lon="2.8807748754978157"><ele>350.0</ele><time>2026-04-02T11:57:12Z</time></trkpt><trkpt lat="43.95286250641906" lon="2.880801219958066"><ele>350.0</ele><time>2026-04-02T11:57:13Z</time></trkpt><trkpt lat="43.952973968207814" lon="2.8808084302104846"><ele>350.0</ele><time>2026-04-02T11:57:14Z</time></trkpt><trkpt lat="43.953085607870584" lon="2.880803382749712"><ele>350.0</ele><time>2026-04-02T11:57:15Z</time></trkpt><trkpt lat="43.9531937603175" lon="2.8808004760557173"><ele>350.0</ele><time>2026-04-02T11:57:16Z</time></trkpt><trkpt lat="43.95330022142828" lon="2.880800454011819"><ele>350.0</ele><time>2026-04-02T11:57:17Z</time></trkpt><trkpt lat="43.95340061170763" lon="2.8807844386430714"><ele>348.8</ele><time>2026-04-02T11:57:18Z</time></trkpt><trkpt lat="43.95349722848497" lon="2.8807400006753503"><ele>347.6</ele><time>2026-04-02T11:57:19Z</time></trkpt><trkpt lat="43.95358726921245" lon="2.880686507106939"><ele>346.4</ele><time>2026-04-02T11:57:20Z</time></trkpt><trkpt lat="43.95368281395171" lon="2.880645329301829"><ele>345.2</ele><time>2026-04-02T11:57:21Z</time></trkpt><trkpt lat="43.95378244560101" lon="2.8806176240282713"><ele>344.0</ele><time>2026-04-02T11:57:22Z</time></trkpt><trkpt lat="43.95389799716237" lon="2.8805993672793124"><ele>344.0</ele><time>2026-04-02T11:57:23Z</time></trkpt><trkpt lat="43.9540128923877" lon="2.880598515044555"><ele>344.0</ele><time>2026-04-02T11:57:24Z</time></trkpt><trkpt lat="43.95412073917991" lon="2.880589369407374"><ele>344.0</ele><time>2026-04-02T11:57:25Z</time></trkpt><trkpt lat="43.95422628978349" lon="2.8805816407607723"><ele>344.0</ele><time>2026-04-02T11:57:26Z</time></trkpt><trkpt lat="43.95433314046396" lon="2.880582334993783"><ele>344.0</ele><time>2026-04-02T11:57:27Z</time></trkpt><trkpt lat="43.95443554888353" lon="2.8805888423057873"><ele>342.79999999999995</ele><time>2026-04-02T11:57:28Z</time></trkpt><trkpt lat="43.954535221609035" lon="2.8806271516609994"><ele>341.59999999999997</ele><time>2026-04-02T11:57:29Z</time></trkpt><trkpt lat="43.954639806880984" lon="2.8806578732806867"><ele>340.4</ele><time>2026-04-02T11:57:30Z</time></trkpt><trkpt lat="43.95474952431164" lon="2.8806770843831186"><ele>339.2</ele><time>2026-04-02T11:57:31Z</time></trkpt><trkpt lat="43.95485044377092" lon="2.880721858087727"><ele>338.0</ele><time>2026-04-02T11:57:32Z</time></trkpt><trkpt lat="43.95495060970893" lon="2.8807543711248544"><ele>337.4</ele><time>2026-04-02T11:57:33Z</time></trkpt><trkpt lat="43.9550515848287" lon="2.880783949760835"><ele>336.79999999999995</ele><time>2026-04-02T11:57:34Z</time></trkpt><trkpt lat="43.95514875952497" lon="2.8808113599494973"><ele>336.2</ele><time>2026-04-02T11:57:35Z</time></trkpt><trkpt lat="43.955244224082236" lon="2.8808403939194727"><ele>335.6</ele><time>2026-04-02T11:57:36Z</time></trkpt><trkpt lat="43.95533895492859" lon="2.8808716085948034"><ele>335.0</ele><time>2026-04-02T11:57:37Z</time></trkpt><trkpt lat="43.95543279165841" lon="2.8809037059437177"><ele>334.0</ele><time>2026-04-02T11:57:38Z</time></trkpt><trkpt lat="43.95552115719562" lon="2.8809428678432476"><ele>333.0</ele><time>2026-04-02T11:57:39Z</time></trkpt><trkpt lat="43.95559520334605" lon="2.8809670842494453"><ele>332.0</ele><time>2026-04-02T11:57:40Z</time></trkpt><trkpt lat="43.95564295195264" lon="2.88102856978154"><ele>331.0</ele><time>2026-04-02T11:57:41Z</time></trkpt><trkpt lat="43.95567562895487" lon="2.8812109618530655"><ele>330.0</ele><time>2026-04-02T11:57:43Z</time></trkpt><trkpt lat="43.95570656718713" lon="2.881345502367484"><ele>330.0</ele><time>2026-04-02T11:57:44Z</time></trkpt><trkpt lat="43.95575243304004" lon="2.8814835493347375"><ele>330.0</ele><time>2026-04-02T11:57:45Z</time></trkpt><trkpt lat="43.95577103125772" lon="2.8816201595974755"><ele>330.0</ele><time>2026-04-02T11:57:46Z</time></trkpt><trkpt lat="43.95579960139372" lon="2.881733786404164"><ele>330.0</ele><time>2026-04-02T11:57:47Z</time></trkpt><trkpt lat="43.95584290475118" lon="2.881830135096024"><ele>330.0</ele><time>2026-04-02T11:57:48Z</time></trkpt><trkpt lat="43.95587524839316" lon="2.8819284576371333"><ele>329.0</ele><time>2026-04-02T11:57:49Z</time></trkpt><trkpt lat="43.95590866324948" lon="2.8820183173490674"><ele>328.0</ele><time>2026-04-02T11:57:50Z</time></trkpt><trkpt lat="43.95595199871992" lon="2.882125296877355"><ele>327.0</ele><time>2026-04-02T11:57:52Z</time></trkpt><trkpt lat="43.95599533915164" lon="2.8821955763242424"><ele>326.0</ele><time>2026-04-02T11:57:57Z</time></trkpt><trkpt lat="43.956041952430006" lon="2.882271829529153"><ele>325.0</ele><time>2026-04-02T11:57:59Z</time></trkpt><trkpt lat="43.95617262379947" lon="2.8821555522228084"><ele>325.0</ele><time>2026-04-02T11:58:00Z</time></trkpt><trkpt lat="43.95624630462508" lon="2.8820869498434307"><ele>325.0</ele><time>2026-04-02T11:58:01Z</time></trkpt><trkpt lat="43.95633607241861" lon="2.8820395128467116"><ele>325.0</ele><time>2026-04-02T11:58:02Z</time></trkpt><trkpt lat="43.95642343232262" lon="2.8820076317183045"><ele>325.0</ele><time>2026-04-02T11:58:03Z</time></trkpt><trkpt lat="43.95650730177696" lon="2.8819776974478537"><ele>325.0</ele><time>2026-04-02T11:58:04Z</time></trkpt><trkpt lat="43.9565980459092" lon="2.8819451725038134"><ele>325.0</ele><time>2026-04-02T11:58:05Z</time></trkpt><trkpt lat="43.95669323063318" lon="2.8819099209403487"><ele>325.0</ele><time>2026-04-02T11:58:06Z</time></trkpt><trkpt lat="43.956787502742195" lon="2.881867592190913"><ele>325.0</ele><time>2026-04-02T11:58:07Z</time></trkpt><trkpt lat="43.95687594300901" lon="2.8818292830727836"><ele>325.0</ele><time>2026-04-02T11:58:08Z</time></trkpt><trkpt lat="43.95696079037053" lon="2.8817977980216396"><ele>325.0</ele><time>2026-04-02T11:58:09Z</time></trkpt><trkpt lat="43.9570375213056" lon="2.881768872424261"><ele>324.66666666666663</ele><time>2026-04-02T11:58:10Z</time></trkpt><trkpt lat="43.95711029222041" lon="2.8817401357916492"><ele>324.3333333333333</ele><time>2026-04-02T11:58:11Z</time></trkpt><trkpt lat="43.95718258358138" lon="2.881711087292758"><ele>324.0</ele><time>2026-04-02T11:58:12Z</time></trkpt><trkpt lat="43.95724803240368" lon="2.8816832721399983"><ele>323.6666666666667</ele><time>2026-04-02T11:58:13Z</time></trkpt><trkpt lat="43.95731204942422" lon="2.8816563270180153"><ele>323.33333333333337</ele><time>2026-04-02T11:58:14Z</time></trkpt><trkpt lat="43.95743112876881" lon="2.88162448593683"><ele>323.0</ele><time>2026-04-02T11:58:16Z</time></trkpt><trkpt lat="43.95755090358955" lon="2.8816772650672213"><ele>322.79999999999995</ele><time>2026-04-02T11:58:18Z</time></trkpt><trkpt lat="43.95761735128773" lon="2.8817399638940104"><ele>322.6</ele><time>2026-04-02T11:58:19Z</time></trkpt><trkpt lat="43.95768346357961" lon="2.881821233349807"><ele>322.4</ele><time>2026-04-02T11:58:20Z</time></trkpt><trkpt lat="43.957718995093394" lon="2.8819358283069305"><ele>322.20000000000005</ele><time>2026-04-02T11:58:21Z</time></trkpt><trkpt lat="43.9577488676258" lon="2.882063765788456"><ele>322.0</ele><time>2026-04-02T11:58:22Z</time></trkpt><trkpt lat="43.95778494003869" lon="2.882209516023729"><ele>322.0</ele><time>2026-04-02T11:58:23Z</time></trkpt><trkpt lat="43.957817379664746" lon="2.882368704660271"><ele>322.0</ele><time>2026-04-02T11:58:24Z</time></trkpt><trkpt lat="43.957853090099974" lon="2.8825203469405056"><ele>322.0</ele><time>2026-04-02T11:58:25Z</time></trkpt><trkpt lat="43.95788283367324" lon="2.882661936610131"><ele>322.0</ele><time>2026-04-02T11:58:26Z</time></trkpt><trkpt lat="43.95791023250933" lon="2.8827902660171647"><ele>322.0</ele><time>2026-04-02T11:58:27Z</time></trkpt><trkpt lat="43.95793458533471" lon="2.882911368222784"><ele>322.16666666666663</ele><time>2026-04-02T11:58:28Z</time></trkpt><trkpt lat="43.957954791476055" lon="2.883027074684221"><ele>322.3333333333333</ele><time>2026-04-02T11:58:29Z</time></trkpt><trkpt lat="43.957978013586285" lon="2.88313960982346"><ele>322.5</ele><time>2026-04-02T11:58:30Z</time></trkpt><trkpt lat="43.95800357310907" lon="2.8832471170204688"><ele>322.6666666666667</ele><time>2026-04-02T11:58:31Z</time></trkpt><trkpt lat="43.958028114706245" lon="2.883340974382094"><ele>322.83333333333337</ele><time>2026-04-02T11:58:32Z</time></trkpt><trkpt lat="43.95804684290642" lon="2.8834315288044343"><ele>323.0</ele><time>2026-04-02T11:58:33Z</time></trkpt><trkpt lat="43.95806119953877" lon="2.883517349831423"><ele>322.59999999999997</ele><time>2026-04-02T11:58:34Z</time></trkpt><trkpt lat="43.958048389959664" lon="2.883668775649704"><ele>322.2</ele><time>2026-04-02T11:58:36Z</time></trkpt><trkpt lat="43.95797070666682" lon="2.883763100880823"><ele>321.8</ele><time>2026-04-02T11:58:38Z</time></trkpt><trkpt lat="43.95790557402554" lon="2.883780705392656"><ele>321.4</ele><time>2026-04-02T11:58:39Z</time></trkpt><trkpt lat="43.957837499582574" lon="2.8838029261168785"><ele>321.0</ele><time>2026-04-02T11:58:40Z</time></trkpt><trkpt lat="43.957717656137035" lon="2.88385532985321"><ele>321.0</ele><time>2026-04-02T11:58:42Z</time></trkpt><trkpt lat="43.95763607922836" lon="2.8839486247252077"><ele>321.0</ele><time>2026-04-02T11:58:44Z</time></trkpt><trkpt lat="43.95769117716738" lon="2.8841303259003874"><ele>321.0</ele><time>2026-04-02T11:58:47Z</time></trkpt><trkpt lat="43.95769471978529" lon="2.8842336560120327"><ele>321.0</ele><time>2026-04-02T11:58:49Z</time></trkpt><trkpt lat="43.957829019643505" lon="2.8841712193914963"><ele>321.0</ele><time>2026-04-02T11:58:51Z</time></trkpt><trkpt lat="43.957895062061525" lon="2.8841932247650837"><ele>321.0</ele><time>2026-04-02T11:58:55Z</time></trkpt><trkpt lat="43.95783604508172" lon="2.884149044519571"><ele>321.0</ele><time>2026-04-02T12:09:03Z</time></trkpt><trkpt lat="43.957918118587834" lon="2.88413659457633"><ele>321.0</ele><time>2026-04-02T12:17:06Z</time></trkpt><trkpt lat="43.957991513768455" lon="2.884070150436365"><ele>321.0</ele><time>2026-04-02T12:17:08Z</time></trkpt><trkpt lat="43.958065460427065" lon="2.8840369645401904"><ele>321.0</ele><time>2026-04-02T12:17:10Z</time></trkpt><trkpt lat="43.958131049583194" lon="2.884009681356658"><ele>321.0</ele><time>2026-04-02T12:17:13Z</time></trkpt><trkpt lat="43.95817729533218" lon="2.8839092632825074"><ele>321.0</ele><time>2026-04-02T12:17:28Z</time></trkpt><trkpt lat="43.958157251074006" lon="2.8838206529362953"><ele>321.0</ele><time>2026-04-02T12:17:29Z</time></trkpt><trkpt lat="43.95814071666148" lon="2.8837048969960684"><ele>321.0</ele><time>2026-04-02T12:17:30Z</time></trkpt><trkpt lat="43.95811391153141" lon="2.8835900818617812"><ele>321.0</ele><time>2026-04-02T12:17:31Z</time></trkpt><trkpt lat="43.95809327887428" lon="2.883494081461481"><ele>321.0</ele><time>2026-04-02T12:17:32Z</time></trkpt><trkpt lat="43.958063709572365" lon="2.883390988416382"><ele>321.4</ele><time>2026-04-02T12:17:33Z</time></trkpt><trkpt lat="43.9580386201449" lon="2.8832714892333957"><ele>321.8</ele><time>2026-04-02T12:17:34Z</time></trkpt><trkpt lat="43.95801032973313" lon="2.8831509099838692"><ele>322.2</ele><time>2026-04-02T12:17:35Z</time></trkpt><trkpt lat="43.957985712206295" lon="2.883018295851548"><ele>322.59999999999997</ele><time>2026-04-02T12:17:36Z</time></trkpt><trkpt lat="43.95796149097019" lon="2.8828823370014445"><ele>323.0</ele><time>2026-04-02T12:17:37Z</time></trkpt><trkpt lat="43.95794334034224" lon="2.8827566266335265"><ele>323.00000000000006</ele><time>2026-04-02T12:17:38Z</time></trkpt><trkpt lat="43.95792324022948" lon="2.88265291412736"><ele>323.0</ele><time>2026-04-02T12:17:39Z</time></trkpt><trkpt lat="43.957902616281395" lon="2.8825593392224254"><ele>323.0</ele><time>2026-04-02T12:17:40Z</time></trkpt><trkpt lat="43.95788237474302" lon="2.8824738659393594"><ele>323.0</ele><time>2026-04-02T12:17:41Z</time></trkpt><trkpt lat="43.95786099749191" lon="2.882379571663418"><ele>323.0</ele><time>2026-04-02T12:17:42Z</time></trkpt><trkpt lat="43.95783893041936" lon="2.8822748070704134"><ele>323.00000000000006</ele><time>2026-04-02T12:17:43Z</time></trkpt><trkpt lat="43.957820846276896" lon="2.882180677974878"><ele>323.0</ele><time>2026-04-02T12:17:44Z</time></trkpt><trkpt lat="43.957802436741694" lon="2.8820898302242863"><ele>322.8571428571429</ele><time>2026-04-02T12:17:45Z</time></trkpt><trkpt lat="43.95777910715709" lon="2.8819891503907082"><ele>322.7142857142857</ele><time>2026-04-02T12:17:46Z</time></trkpt><trkpt lat="43.957755217038574" lon="2.8818886467512144"><ele>322.57142857142856</ele><time>2026-04-02T12:17:47Z</time></trkpt><trkpt lat="43.95773122766903" lon="2.8817852659227943"><ele>322.42857142857144</ele><time>2026-04-02T12:17:48Z</time></trkpt><trkpt lat="43.95770739716625" lon="2.881687043239323"><ele>322.2857142857143</ele><time>2026-04-02T12:17:49Z</time></trkpt><trkpt lat="43.95769561762397" lon="2.8815881540708688"><ele>322.14285714285717</ele><time>2026-04-02T12:17:50Z</time></trkpt><trkpt lat="43.957684133155816" lon="2.8814945424161564"><ele>322.0</ele><time>2026-04-02T12:17:51Z</time></trkpt><trkpt lat="43.95766339006655" lon="2.881403773719859"><ele>321.8333333333333</ele><time>2026-04-02T12:17:52Z</time></trkpt><trkpt lat="43.95763080241742" lon="2.8813189723267754"><ele>321.66666666666663</ele><time>2026-04-02T12:17:53Z</time></trkpt><trkpt lat="43.95760360300172" lon="2.8812366585828064"><ele>321.5</ele><time>2026-04-02T12:17:54Z</time></trkpt><trkpt lat="43.957569620802396" lon="2.881088017491405"><ele>321.3333333333333</ele><time>2026-04-02T12:17:56Z</time></trkpt><trkpt lat="43.95753688113769" lon="2.880944360914213"><ele>321.1666666666667</ele><time>2026-04-02T12:17:58Z</time></trkpt><trkpt lat="43.957517725056206" lon="2.880847917097112"><ele>321.0</ele><time>2026-04-02T12:17:59Z</time></trkpt><trkpt lat="43.957497092522544" lon="2.8807439889273354"><ele>321.6</ele><time>2026-04-02T12:18:00Z</time></trkpt><trkpt lat="43.95747598300675" lon="2.880650760950779"><ele>322.20000000000005</ele><time>2026-04-02T12:18:01Z</time></trkpt><trkpt lat="43.957466009805884" lon="2.8805435903778713"><ele>322.79999999999995</ele><time>2026-04-02T12:18:02Z</time></trkpt><trkpt lat="43.95743944179915" lon="2.880419667228212"><ele>323.4</ele><time>2026-04-02T12:18:03Z</time></trkpt><trkpt lat="43.95741153396181" lon="2.880280156260019"><ele>324.0</ele><time>2026-04-02T12:18:04Z</time></trkpt><trkpt lat="43.95738915490634" lon="2.880116644751662"><ele>323.75</ele><time>2026-04-02T12:18:05Z</time></trkpt><trkpt lat="43.95735207870704" lon="2.879954339657166"><ele>323.5</ele><time>2026-04-02T12:18:06Z</time></trkpt><trkpt lat="43.95732012103366" lon="2.8798016237752875"><ele>323.25</ele><time>2026-04-02T12:18:07Z</time></trkpt><trkpt lat="43.95729079813502" lon="2.879651176302669"><ele>323.0</ele><time>2026-04-02T12:18:08Z</time></trkpt><trkpt lat="43.9572595043095" lon="2.8795032279835424"><ele>323.0</ele><time>2026-04-02T12:18:09Z</time></trkpt><trkpt lat="43.957226474478105" lon="2.879355336427994"><ele>323.0</ele><time>2026-04-02T12:18:10Z</time></trkpt><trkpt lat="43.957194514692276" lon="2.8792083050119577"><ele>323.0</ele><time>2026-04-02T12:18:11Z</time></trkpt><trkpt lat="43.95716416406576" lon="2.879062993526133"><ele>323.0</ele><time>2026-04-02T12:18:12Z</time></trkpt><trkpt lat="43.95713357623049" lon="2.8789258856863684"><ele>323.0</ele><time>2026-04-02T12:18:13Z</time></trkpt><trkpt lat="43.95710784713427" lon="2.878815498077655"><ele>322.6666666666667</ele><time>2026-04-02T12:18:14Z</time></trkpt><trkpt lat="43.95709232924282" lon="2.878729416807121"><ele>322.33333333333337</ele><time>2026-04-02T12:18:15Z</time></trkpt><trkpt lat="43.957072482210826" lon="2.8786281739791724"><ele>322.0</ele><time>2026-04-02T12:18:17Z</time></trkpt><trkpt lat="43.95704626833142" lon="2.878501792852242"><ele>321.6666666666667</ele><time>2026-04-02T12:18:20Z</time></trkpt><trkpt lat="43.957044894616025" lon="2.8784075521701107"><ele>321.3333333333333</ele><time>2026-04-02T12:18:21Z</time></trkpt><trkpt lat="43.95703407997761" lon="2.878265062165429"><ele>321.0</ele><time>2026-04-02T12:18:23Z</time></trkpt><trkpt lat="43.957012057811774" lon="2.8780787480662866"><ele>321.0</ele><time>2026-04-02T12:18:25Z</time></trkpt><trkpt lat="43.95700006727451" lon="2.8779920020749126"><ele>321.0</ele><time>2026-04-02T12:18:26Z</time></trkpt><trkpt lat="43.95701904086954" lon="2.877861271582036"><ele>321.0</ele><time>2026-04-02T12:18:28Z</time></trkpt><trkpt lat="43.95702038463283" lon="2.877742438480256"><ele>321.0</ele><time>2026-04-02T12:18:30Z</time></trkpt><trkpt lat="43.95702084303346" lon="2.877642323823935"><ele>321.0</ele><time>2026-04-02T12:18:32Z</time></trkpt><trkpt lat="43.9570118557928" lon="2.877501179241497"><ele>321.0</ele><time>2026-04-02T12:18:47Z</time></trkpt><trkpt lat="43.95701574089464" lon="2.877377559898819"><ele>320.8</ele><time>2026-04-02T12:18:48Z</time></trkpt><trkpt lat="43.95702105691341" lon="2.877252426830315"><ele>320.6</ele><time>2026-04-02T12:18:49Z</time></trkpt><trkpt lat="43.95703061528714" lon="2.877111715747865"><ele>320.4</ele><time>2026-04-02T12:18:50Z</time></trkpt><trkpt lat="43.95704250859684" lon="2.8769710046776575"><ele>320.2</ele><time>2026-04-02T12:18:51Z</time></trkpt><trkpt lat="43.957053293692795" lon="2.87684701889052"><ele>320.0</ele><time>2026-04-02T12:18:52Z</time></trkpt><trkpt lat="43.95705670650084" lon="2.876752065808143"><ele>319.83333333333337</ele><time>2026-04-02T12:18:53Z</time></trkpt><trkpt lat="43.95706435746896" lon="2.876655196496284"><ele>319.6666666666667</ele><time>2026-04-02T12:18:55Z</time></trkpt><trkpt lat="43.956980847791066" lon="2.876621467664691"><ele>319.5</ele><time>2026-04-02T12:18:58Z</time></trkpt><trkpt lat="43.95691557312996" lon="2.8766323779494343"><ele>319.3333333333333</ele><time>2026-04-02T12:18:59Z</time></trkpt><trkpt lat="43.95683964292417" lon="2.8766458717299175"><ele>319.16666666666663</ele><time>2026-04-02T12:19:01Z</time></trkpt><trkpt lat="43.95679982075764" lon="2.876563664682392"><ele>319.0</ele><time>2026-04-02T12:19:03Z</time></trkpt><trkpt lat="43.956826255633985" lon="2.876395526186104"><ele>319.0</ele><time>2026-04-02T12:19:05Z</time></trkpt><trkpt lat="43.95684140568369" lon="2.8762800410211473"><ele>319.0</ele><time>2026-04-02T12:19:06Z</time></trkpt><trkpt lat="43.95684613954306" lon="2.876179732569809"><ele>319.0</ele><time>2026-04-02T12:19:07Z</time></trkpt><trkpt lat="43.9568434307334" lon="2.8760839533532074"><ele>319.0</ele><time>2026-04-02T12:19:08Z</time></trkpt><trkpt lat="43.95683161375882" lon="2.875985159715611"><ele>319.0</ele><time>2026-04-02T12:19:09Z</time></trkpt><trkpt lat="43.95681619212421" lon="2.87589676464613"><ele>319.0</ele><time>2026-04-02T12:19:10Z</time></trkpt><trkpt lat="43.95678016884992" lon="2.875723610834866"><ele>319.42857142857144</ele><time>2026-04-02T12:19:12Z</time></trkpt><trkpt lat="43.956760038786726" lon="2.8756314231930995"><ele>319.85714285714283</ele><time>2026-04-02T12:19:13Z</time></trkpt><trkpt lat="43.956742100763435" lon="2.875537092746704"><ele>320.2857142857143</ele><time>2026-04-02T12:19:14Z</time></trkpt><trkpt lat="43.95673491869123" lon="2.8754405880954503"><ele>320.7142857142857</ele><time>2026-04-02T12:19:15Z</time></trkpt><trkpt lat="43.95673843537353" lon="2.8753435290412406"><ele>321.1428571428571</ele><time>2026-04-02T12:19:16Z</time></trkpt><trkpt lat="43.95674304272021" lon="2.875255571139788"><ele>321.57142857142856</ele><time>2026-04-02T12:19:17Z</time></trkpt><trkpt lat="43.95669220064301" lon="2.875194295114492"><ele>322.0</ele><time>2026-04-02T12:19:23Z</time></trkpt><trkpt lat="43.95663531510732" lon="2.875288957398229"><ele>324.5</ele><time>2026-04-02T12:19:25Z</time></trkpt><trkpt lat="43.956618174270496" lon="2.8754290416222323"><ele>327.0</ele><time>2026-04-02T12:19:26Z</time></trkpt><trkpt lat="43.95660505895585" lon="2.8755751478915523"><ele>329.5</ele><time>2026-04-02T12:19:27Z</time></trkpt><trkpt lat="43.956579902213434" lon="2.8757393155942093"><ele>332.0</ele><time>2026-04-02T12:19:28Z</time></trkpt><trkpt lat="43.95655993406202" lon="2.8759427880709656"><ele>332.0</ele><time>2026-04-02T12:19:29Z</time></trkpt><trkpt lat="43.95655215855477" lon="2.8761280627541033"><ele>332.0</ele><time>2026-04-02T12:19:30Z</time></trkpt><trkpt lat="43.95654544618488" lon="2.876287485236246"><ele>332.0</ele><time>2026-04-02T12:19:31Z</time></trkpt><trkpt lat="43.95655057667929" lon="2.8764445155624023"><ele>332.0</ele><time>2026-04-02T12:19:32Z</time></trkpt><trkpt lat="43.95655855201662" lon="2.8766093156680754"><ele>332.75</ele><time>2026-04-02T12:19:33Z</time></trkpt><trkpt lat="43.95656812562324" lon="2.8767731108540437"><ele>333.5</ele><time>2026-04-02T12:19:34Z</time></trkpt><trkpt lat="43.95657920772018" lon="2.8769397739038802"><ele>334.25</ele><time>2026-04-02T12:19:35Z</time></trkpt><trkpt lat="43.956606573421745" lon="2.8771053725628764"><ele>335.0</ele><time>2026-04-02T12:19:36Z</time></trkpt><trkpt lat="43.95661012388417" lon="2.8772741475539623"><ele>335.0</ele><time>2026-04-02T12:19:37Z</time></trkpt><trkpt lat="43.95662429405075" lon="2.8774432866045667"><ele>335.0</ele><time>2026-04-02T12:19:38Z</time></trkpt><trkpt lat="43.956632072261314" lon="2.87760977449877"><ele>335.0</ele><time>2026-04-02T12:19:39Z</time></trkpt><trkpt lat="43.95662302976901" lon="2.877779052502816"><ele>335.0</ele><time>2026-04-02T12:19:40Z</time></trkpt><trkpt lat="43.956645883086495" lon="2.8779312777008954"><ele>335.83333333333337</ele><time>2026-04-02T12:19:41Z</time></trkpt><trkpt lat="43.95664543403686" lon="2.8780693311601335"><ele>336.6666666666667</ele><time>2026-04-02T12:19:42Z</time></trkpt><trkpt lat="43.956646765383674" lon="2.8781938189114418"><ele>337.5</ele><time>2026-04-02T12:19:43Z</time></trkpt><trkpt lat="43.956647155565" lon="2.8783161474400187"><ele>338.3333333333333</ele><time>2026-04-02T12:19:44Z</time></trkpt><trkpt lat="43.95663142279919" lon="2.878410431192203"><ele>339.16666666666663</ele><time>2026-04-02T12:19:45Z</time></trkpt><trkpt lat="43.95662595353074" lon="2.8785063397435025"><ele>340.0</ele><time>2026-04-02T12:19:46Z</time></trkpt><trkpt lat="43.956619463523275" lon="2.8785952710465152"><ele>341.0</ele><time>2026-04-02T12:19:47Z</time></trkpt><trkpt lat="43.95661088331988" lon="2.8787322229447847"><ele>342.0</ele><time>2026-04-02T12:19:49Z</time></trkpt><trkpt lat="43.956579840746144" lon="2.878863856192785"><ele>343.0</ele><time>2026-04-02T12:19:51.026Z</time></trkpt><trkpt lat="43.95642683440268" lon="2.8796368187179198"><ele>335.0</ele><time>2026-04-02T12:19:57.05Z</time></trkpt><trkpt lat="43.956315808160994" lon="2.880141251682474"><ele>327.0</ele><time>2026-04-02T12:19:58Z</time></trkpt><trkpt lat="43.956207737308134" lon="2.880351175790921"><ele>327.0</ele><time>2026-04-02T12:19:59Z</time></trkpt><trkpt lat="43.9561537472354" lon="2.8805314282987644"><ele>327.0</ele><time>2026-04-02T12:20:00Z</time></trkpt><trkpt lat="43.95610593075893" lon="2.880688256115963"><ele>327.0</ele><time>2026-04-02T12:20:01Z</time></trkpt><trkpt lat="43.95605921263537" lon="2.8808380721924585"><ele>327.0</ele><time>2026-04-02T12:20:02Z</time></trkpt><trkpt lat="43.95601008034225" lon="2.880989759310642"><ele>326.6</ele><time>2026-04-02T12:20:03Z</time></trkpt><trkpt lat="43.95595956775322" lon="2.8811228630116332"><ele>326.20000000000005</ele><time>2026-04-02T12:20:04Z</time></trkpt><trkpt lat="43.955911768656" lon="2.8812406570218903"><ele>325.8</ele><time>2026-04-02T12:20:05Z</time></trkpt><trkpt lat="43.95586676871094" lon="2.881348086780528"><ele>325.4</ele><time>2026-04-02T12:20:06Z</time></trkpt><trkpt lat="43.95583101861919" lon="2.881443974926609"><ele>325.0</ele><time>2026-04-02T12:20:07Z</time></trkpt><trkpt lat="43.9558020949506" lon="2.881549856354132"><ele>325.0</ele><time>2026-04-02T12:20:09Z</time></trkpt><trkpt lat="43.95578640860146" lon="2.881636313898908"><ele>325.0</ele><time>2026-04-02T12:20:13Z</time></trkpt><trkpt lat="43.955759325876635" lon="2.881748596103455"><ele>325.0</ele><time>2026-04-02T12:20:14Z</time></trkpt><trkpt lat="43.95586115476364" lon="2.881899922730734"><ele>325.0</ele><time>2026-04-02T12:20:15Z</time></trkpt><trkpt lat="43.95590813202484" lon="2.8820040755523917"><ele>325.0</ele><time>2026-04-02T12:20:16Z</time></trkpt><trkpt lat="43.95593820987597" lon="2.8820933199062884"><ele>325.0</ele><time>2026-04-02T12:20:17Z</time></trkpt><trkpt lat="43.955959554018754" lon="2.8822127568756923"><ele>325.0</ele><time>2026-04-02T12:20:19Z</time></trkpt><trkpt lat="43.95594991753958" lon="2.882378768019439"><ele>325.0</ele><time>2026-04-02T12:20:32Z</time></trkpt><trkpt lat="43.95592579457344" lon="2.8824614857061737"><ele>325.0</ele><time>2026-04-02T12:20:33Z</time></trkpt><trkpt lat="43.95590864933831" lon="2.8825760271621954"><ele>325.0</ele><time>2026-04-02T12:20:34Z</time></trkpt><trkpt lat="43.95589655781945" lon="2.882698363130871"><ele>325.0</ele><time>2026-04-02T12:20:35Z</time></trkpt><trkpt lat="43.95588462398093" lon="2.8828186827751536"><ele>325.0</ele><time>2026-04-02T12:20:36Z</time></trkpt><trkpt lat="43.95587125709909" lon="2.882925315705237"><ele>325.0</ele><time>2026-04-02T12:20:37Z</time></trkpt><trkpt lat="43.95586685128312" lon="2.883028799378817"><ele>325.0</ele><time>2026-04-02T12:20:38Z</time></trkpt><trkpt lat="43.955858753169956" lon="2.883129500419925"><ele>325.0</ele><time>2026-04-02T12:20:39Z</time></trkpt><trkpt lat="43.95584891781968" lon="2.883222288547998"><ele>325.0</ele><time>2026-04-02T12:20:40Z</time></trkpt><trkpt lat="43.95584443603545" lon="2.8833269466191744"><ele>325.0</ele><time>2026-04-02T12:20:41Z</time></trkpt><trkpt lat="43.95582052502493" lon="2.8834374480622165"><ele>325.0</ele><time>2026-04-02T12:20:42Z</time></trkpt><trkpt lat="43.95582636157254" lon="2.883551564847408"><ele>325.0</ele><time>2026-04-02T12:20:43Z</time></trkpt><trkpt lat="43.95580365022811" lon="2.8836519866548143"><ele>325.0</ele><time>2026-04-02T12:20:44Z</time></trkpt><trkpt lat="43.95579614971898" lon="2.883748352418044"><ele>325.0</ele><time>2026-04-02T12:20:45Z</time></trkpt><trkpt lat="43.9557803415069" lon="2.883936149390051"><ele>325.0</ele><time>2026-04-02T12:20:47Z</time></trkpt><trkpt lat="43.95576942845824" lon="2.884049539116879"><ele>325.0</ele><time>2026-04-02T12:20:48Z</time></trkpt><trkpt lat="43.95575924360637" lon="2.884161423011768"><ele>325.1428571428571</ele><time>2026-04-02T12:20:49Z</time></trkpt><trkpt lat="43.95575191574249" lon="2.8842769147067844"><ele>325.28571428571433</ele><time>2026-04-02T12:20:50Z</time></trkpt><trkpt lat="43.95574885089544" lon="2.8843821635371163"><ele>325.42857142857144</ele><time>2026-04-02T12:20:51Z</time></trkpt><trkpt lat="43.955769092304294" lon="2.8844756923799184"><ele>325.57142857142856</ele><time>2026-04-02T12:20:52Z</time></trkpt><trkpt lat="43.95577989605885" lon="2.8845646308538093"><ele>325.71428571428567</ele><time>2026-04-02T12:20:53Z</time></trkpt><trkpt lat="43.95579528527506" lon="2.884656708696936"><ele>325.8571428571429</ele><time>2026-04-02T12:20:54Z</time></trkpt><trkpt lat="43.9558231560144" lon="2.8847601364659115"><ele>326.0</ele><time>2026-04-02T12:20:55Z</time></trkpt><trkpt lat="43.9558501170348" lon="2.884862428416108"><ele>325.33333333333337</ele><time>2026-04-02T12:20:56Z</time></trkpt><trkpt lat="43.95587484295695" lon="2.8849587260636134"><ele>324.6666666666667</ele><time>2026-04-02T12:20:57Z</time></trkpt><trkpt lat="43.95587721351129" lon="2.885052924289188"><ele>324.0</ele><time>2026-04-02T12:20:58Z</time></trkpt><trkpt lat="43.95591155021602" lon="2.885131298407923"><ele>323.3333333333333</ele><time>2026-04-02T12:20:59Z</time></trkpt><trkpt lat="43.95594843650641" lon="2.885292044634622"><ele>322.66666666666663</ele><time>2026-04-02T12:21:01Z</time></trkpt><trkpt lat="43.9559758443925" lon="2.885419397061912"><ele>322.0</ele><time>2026-04-02T12:21:03Z</time></trkpt><trkpt lat="43.956010691654775" lon="2.885556781643979"><ele>322.0</ele><time>2026-04-02T12:21:05Z</time></trkpt><trkpt lat="43.956051651015876" lon="2.8856914676836936"><ele>322.0</ele><time>2026-04-02T12:21:07Z</time></trkpt><trkpt lat="43.956125247516155" lon="2.885825266963339"><ele>322.0</ele><time>2026-04-02T12:21:09Z</time></trkpt><trkpt lat="43.956179063610016" lon="2.885899777920929"><ele>322.0</ele><time>2026-04-02T12:21:10Z</time></trkpt><trkpt lat="43.95623355440222" lon="2.88596817138848"><ele>322.0</ele><time>2026-04-02T12:21:11Z</time></trkpt><trkpt lat="43.95633547121452" lon="2.8860765239404405"><ele>322.0</ele><time>2026-04-02T12:21:13Z</time></trkpt><trkpt lat="43.956389253266565" lon="2.886135214011972"><ele>322.0</ele><time>2026-04-02T12:21:14Z</time></trkpt><trkpt lat="43.956439339675754" lon="2.886196462472218"><ele>322.0</ele><time>2026-04-02T12:21:15Z</time></trkpt><trkpt lat="43.95649090446033" lon="2.8862534664425903"><ele>322.0</ele><time>2026-04-02T12:21:16Z</time></trkpt><trkpt lat="43.956550422210434" lon="2.8863190024512484"><ele>322.0</ele><time>2026-04-02T12:21:17Z</time></trkpt><trkpt lat="43.956708204647235" lon="2.8864531759958973"><ele>323.20000000000005</ele><time>2026-04-02T12:21:19Z</time></trkpt><trkpt lat="43.956803164310855" lon="2.8865646505538267"><ele>324.4</ele><time>2026-04-02T12:21:20Z</time></trkpt><trkpt lat="43.95687814641924" lon="2.8866772695862917"><ele>325.6</ele><time>2026-04-02T12:21:21Z</time></trkpt><trkpt lat="43.95694963546776" lon="2.8867695533918583"><ele>326.79999999999995</ele><time>2026-04-02T12:21:22Z</time></trkpt><trkpt lat="43.95702597274609" lon="2.886830373179659"><ele>328.0</ele><time>2026-04-02T12:21:23Z</time></trkpt><trkpt lat="43.95709218853516" lon="2.8868893732443186"><ele>328.0</ele><time>2026-04-02T12:21:24Z</time></trkpt><trkpt lat="43.957150566433924" lon="2.8869477631877647"><ele>328.0</ele><time>2026-04-02T12:21:25Z</time></trkpt><trkpt lat="43.957200865140756" lon="2.88700585365581"><ele>328.0</ele><time>2026-04-02T12:21:26Z</time></trkpt><trkpt lat="43.95730304252798" lon="2.8871089669125314"><ele>328.0</ele><time>2026-04-02T12:21:28Z</time></trkpt><trkpt lat="43.95736556781876" lon="2.887142372469701"><ele>328.0</ele><time>2026-04-02T12:21:29Z</time></trkpt><trkpt lat="43.957441412735264" lon="2.8872200611557055"><ele>328.0</ele><time>2026-04-02T12:21:31Z</time></trkpt><trkpt lat="43.9575358851049" lon="2.887303407101613"><ele>328.59999999999997</ele><time>2026-04-02T12:21:33Z</time></trkpt><trkpt lat="43.95763353066077" lon="2.8873794702477817"><ele>329.2</ele><time>2026-04-02T12:21:35Z</time></trkpt><trkpt lat="43.957727750598536" lon="2.8874440800823638"><ele>329.8</ele><time>2026-04-02T12:21:37Z</time></trkpt><trkpt lat="43.957802189356855" lon="2.8874957032703827"><ele>330.4</ele><time>2026-04-02T12:21:39Z</time></trkpt><trkpt lat="43.95787347402438" lon="2.887560976904606"><ele>331.0</ele><time>2026-04-02T12:21:41Z</time></trkpt><trkpt lat="43.957941214788455" lon="2.8876122655230785"><ele>331.0</ele><time>2026-04-02T12:21:43Z</time></trkpt><trkpt lat="43.95801327076325" lon="2.8876593463274514"><ele>331.0</ele><time>2026-04-02T12:21:46Z</time></trkpt><trkpt lat="43.958070923690556" lon="2.887716741697031"><ele>331.0</ele><time>2026-04-02T12:21:48Z</time></trkpt><trkpt lat="43.95819175035504" lon="2.887632139583615"><ele>331.0</ele><time>2026-04-02T12:21:51Z</time></trkpt><trkpt lat="43.958256814215794" lon="2.887510655381583"><ele>331.0</ele><time>2026-04-02T12:21:53Z</time></trkpt><trkpt lat="43.95834051361064" lon="2.8873814377891778"><ele>333.0</ele><time>2026-04-02T12:21:55Z</time></trkpt><trkpt lat="43.95842226346445" lon="2.8872544764442716"><ele>335.0</ele><time>2026-04-02T12:21:57Z</time></trkpt><trkpt lat="43.958506970088415" lon="2.88713656345257"><ele>337.0</ele><time>2026-04-02T12:21:59Z</time></trkpt><trkpt lat="43.95859052396779" lon="2.8870256872750724"><ele>339.0</ele><time>2026-04-02T12:22:01Z</time></trkpt><trkpt lat="43.958678722035714" lon="2.886919451773174"><ele>339.0</ele><time>2026-04-02T12:22:03Z</time></trkpt><trkpt lat="43.95873890386563" lon="2.8868137034127748"><ele>339.0</ele><time>2026-04-02T12:22:05Z</time></trkpt><trkpt lat="43.95877467519989" lon="2.886709811349818"><ele>339.0</ele><time>2026-04-02T12:22:08Z</time></trkpt><trkpt lat="43.95881285873826" lon="2.8866091707312886"><ele>339.0</ele><time>2026-04-02T12:22:30Z</time></trkpt><trkpt lat="43.95891235784023" lon="2.8866631509972476"><ele>339.0</ele><time>2026-04-02T12:22:31Z</time></trkpt><trkpt lat="43.958999767777655" lon="2.886585582915656"><ele>338.0</ele><time>2026-04-02T12:22:33Z</time></trkpt><trkpt lat="43.959034941874705" lon="2.886504670421137"><ele>337.0</ele><time>2026-04-02T12:22:34Z</time></trkpt><trkpt lat="43.95908047166097" lon="2.88640460447725"><ele>336.0</ele><time>2026-04-02T12:22:35Z</time></trkpt><trkpt lat="43.95913313187962" lon="2.8862953632154094"><ele>335.0</ele><time>2026-04-02T12:22:36Z</time></trkpt><trkpt lat="43.95918555572755" lon="2.8861869569910374"><ele>334.0</ele><time>2026-04-02T12:22:37Z</time></trkpt><trkpt lat="43.959237186737546" lon="2.8860803123559537"><ele>333.0</ele><time>2026-04-02T12:22:38Z</time></trkpt><trkpt lat="43.959286668223506" lon="2.885978108025049"><ele>334.42857142857144</ele><time>2026-04-02T12:22:39Z</time></trkpt><trkpt lat="43.95932796623853" lon="2.8858928063661295"><ele>335.85714285714283</ele><time>2026-04-02T12:22:40Z</time></trkpt><trkpt lat="43.95940128892071" lon="2.8858119854545836"><ele>337.2857142857143</ele><time>2026-04-02T12:22:42Z</time></trkpt><trkpt lat="43.95945380536057" lon="2.88575080705913"><ele>338.7142857142857</ele><time>2026-04-02T12:22:43Z</time></trkpt><trkpt lat="43.95950114596515" lon="2.8856916896560514"><ele>340.1428571428571</ele><time>2026-04-02T12:22:44Z</time></trkpt><trkpt lat="43.959528554014085" lon="2.8855925021903928"><ele>341.57142857142856</ele><time>2026-04-02T12:22:45Z</time></trkpt><trkpt lat="43.959562252510054" lon="2.88551641564401"><ele>343.0</ele><time>2026-04-02T12:22:46Z</time></trkpt><trkpt lat="43.95960743092677" lon="2.885446657725301"><ele>343.0</ele><time>2026-04-02T12:22:47Z</time></trkpt><trkpt lat="43.95967404538844" lon="2.8854009938042964"><ele>343.0</ele><time>2026-04-02T12:22:48Z</time></trkpt><trkpt lat="43.95974087997049" lon="2.885352178893217"><ele>343.0</ele><time>2026-04-02T12:22:49Z</time></trkpt><trkpt lat="43.95981498000517" lon="2.8853163967672257"><ele>343.0</ele><time>2026-04-02T12:22:50Z</time></trkpt><trkpt lat="43.95988885363637" lon="2.885287371147741"><ele>343.0</ele><time>2026-04-02T12:22:51Z</time></trkpt><trkpt lat="43.959969124329184" lon="2.8852604766957892"><ele>343.0</ele><time>2026-04-02T12:22:52Z</time></trkpt><trkpt lat="43.960049853050336" lon="2.885240636473333"><ele>342.3333333333333</ele><time>2026-04-02T12:22:53Z</time></trkpt><trkpt lat="43.96013284461548" lon="2.885226159297493"><ele>341.66666666666663</ele><time>2026-04-02T12:22:54Z</time></trkpt><trkpt lat="43.96021960035148" lon="2.8852224481075686"><ele>341.0</ele><time>2026-04-02T12:22:55Z</time></trkpt><trkpt lat="43.96030767538379" lon="2.8852384445148713"><ele>340.3333333333333</ele><time>2026-04-02T12:22:56Z</time></trkpt><trkpt lat="43.96039334967876" lon="2.885273008309588"><ele>339.6666666666667</ele><time>2026-04-02T12:22:57Z</time></trkpt><trkpt lat="43.96046940467578" lon="2.8853317115640666"><ele>339.0</ele><time>2026-04-02T12:22:58Z</time></trkpt><trkpt lat="43.96053331016961" lon="2.8854196518928803"><ele>339.0</ele><time>2026-04-02T12:22:59Z</time></trkpt><trkpt lat="43.96056449389568" lon="2.885532497053922"><ele>339.0</ele><time>2026-04-02T12:23:00Z</time></trkpt><trkpt lat="43.96061936180416" lon="2.885643026420435"><ele>339.0</ele><time>2026-04-02T12:23:01Z</time></trkpt><trkpt lat="43.96068465557097" lon="2.8857623987786982"><ele>339.0</ele><time>2026-04-02T12:23:02Z</time></trkpt><trkpt lat="43.960778248508774" lon="2.8858659339802304"><ele>339.0</ele><time>2026-04-02T12:23:03Z</time></trkpt><trkpt lat="43.96086935605295" lon="2.8859551822955667"><ele>338.79999999999995</ele><time>2026-04-02T12:23:04Z</time></trkpt><trkpt lat="43.960939435669104" lon="2.88604577600011"><ele>338.59999999999997</ele><time>2026-04-02T12:23:05Z</time></trkpt><trkpt lat="43.960995838382615" lon="2.886141366996338"><ele>338.4</ele><time>2026-04-02T12:23:06Z</time></trkpt><trkpt lat="43.96104348723275" lon="2.8862552652183027"><ele>338.2</ele><time>2026-04-02T12:23:07Z</time></trkpt><trkpt lat="43.96108061343064" lon="2.8863933729796893"><ele>338.0</ele><time>2026-04-02T12:23:08Z</time></trkpt><trkpt lat="43.961107973524264" lon="2.8865359370737407"><ele>338.0</ele><time>2026-04-02T12:23:09Z</time></trkpt><trkpt lat="43.961137148399835" lon="2.886673184072122"><ele>338.0</ele><time>2026-04-02T12:23:10Z</time></trkpt><trkpt lat="43.96122446773519" lon="2.8868739335972347"><ele>338.0</ele><time>2026-04-02T12:23:11Z</time></trkpt><trkpt lat="43.96131913428289" lon="2.8870025664542296"><ele>338.0</ele><time>2026-04-02T12:23:12Z</time></trkpt><trkpt lat="43.96140860335214" lon="2.887115256175625"><ele>338.4</ele><time>2026-04-02T12:23:13Z</time></trkpt><trkpt lat="43.96150101175831" lon="2.887205921179428"><ele>338.79999999999995</ele><time>2026-04-02T12:23:14Z</time></trkpt><trkpt lat="43.96159214721036" lon="2.8872896401516663"><ele>339.2</ele><time>2026-04-02T12:23:15Z</time></trkpt><trkpt lat="43.961679831702654" lon="2.8873745093967162"><ele>339.6</ele><time>2026-04-02T12:23:16Z</time></trkpt><trkpt lat="43.961765355267765" lon="2.8874611124353406"><ele>340.0</ele><time>2026-04-02T12:23:17Z</time></trkpt><trkpt lat="43.96184642999925" lon="2.8875457653377428"><ele>341.0</ele><time>2026-04-02T12:23:18Z</time></trkpt><trkpt lat="43.96192346110715" lon="2.887626153195695"><ele>342.0</ele><time>2026-04-02T12:23:19Z</time></trkpt><trkpt lat="43.96200219034951" lon="2.8877084890321485"><ele>343.0</ele><time>2026-04-02T12:23:20Z</time></trkpt><trkpt lat="43.96207881174536" lon="2.8878028517263226"><ele>344.0</ele><time>2026-04-02T12:23:21Z</time></trkpt><trkpt lat="43.962164578922916" lon="2.887889359921971"><ele>345.0</ele><time>2026-04-02T12:23:22Z</time></trkpt><trkpt lat="43.962249110653126" lon="2.8879852603301632"><ele>345.0</ele><time>2026-04-02T12:23:23Z</time></trkpt><trkpt lat="43.96233340791597" lon="2.8880712382229667"><ele>345.0</ele><time>2026-04-02T12:23:24Z</time></trkpt><trkpt lat="43.96241664446201" lon="2.8881625098978594"><ele>345.0</ele><time>2026-04-02T12:23:25Z</time></trkpt><trkpt lat="43.96250456210099" lon="2.8882537056969304"><ele>345.0</ele><time>2026-04-02T12:23:26Z</time></trkpt><trkpt lat="43.96259768923812" lon="2.888347258761337"><ele>345.0</ele><time>2026-04-02T12:23:27Z</time></trkpt><trkpt lat="43.96268820464942" lon="2.888444318557349"><ele>347.25</ele><time>2026-04-02T12:23:28Z</time></trkpt><trkpt lat="43.96278012680376" lon="2.8885450588967228"><ele>349.5</ele><time>2026-04-02T12:23:29Z</time></trkpt><trkpt lat="43.96288099900009" lon="2.888647502647386"><ele>351.75</ele><time>2026-04-02T12:23:30Z</time></trkpt><trkpt lat="43.96298733740234" lon="2.888747364884213"><ele>354.0</ele><time>2026-04-02T12:23:31Z</time></trkpt><trkpt lat="43.96309297678198" lon="2.888866839945424"><ele>354.0</ele><time>2026-04-02T12:23:32Z</time></trkpt><trkpt lat="43.96320752292122" lon="2.8889951137481575"><ele>354.0</ele><time>2026-04-02T12:23:33Z</time></trkpt><trkpt lat="43.963315846762484" lon="2.889116012332085"><ele>354.0</ele><time>2026-04-02T12:23:34Z</time></trkpt><trkpt lat="43.9634319115172" lon="2.8892364928594074"><ele>354.0</ele><time>2026-04-02T12:23:35Z</time></trkpt><trkpt lat="43.963551835468735" lon="2.889359219920667"><ele>358.0</ele><time>2026-04-02T12:23:36Z</time></trkpt><trkpt lat="43.963678798659366" lon="2.889479715416946"><ele>362.0</ele><time>2026-04-02T12:23:37Z</time></trkpt><trkpt lat="43.96382461062389" lon="2.8895767479989165"><ele>366.0</ele><time>2026-04-02T12:23:38Z</time></trkpt><trkpt lat="43.963988121297874" lon="2.889637604438027"><ele>366.0</ele><time>2026-04-02T12:23:39Z</time></trkpt><trkpt lat="43.96415937674545" lon="2.889656050115238"><ele>366.0</ele><time>2026-04-02T12:23:40Z</time></trkpt><trkpt lat="43.964337389818965" lon="2.889654671188082"><ele>366.0</ele><time>2026-04-02T12:23:41Z</time></trkpt><trkpt lat="43.96451345503562" lon="2.889669591159896"><ele>367.3333333333333</ele><time>2026-04-02T12:23:42Z</time></trkpt><trkpt lat="43.96469514746278" lon="2.8896992188356494"><ele>368.66666666666663</ele><time>2026-04-02T12:23:43Z</time></trkpt><trkpt lat="43.964867023896446" lon="2.8897474343881617"><ele>370.0</ele><time>2026-04-02T12:23:44Z</time></trkpt><trkpt lat="43.96503184237662" lon="2.8898193908662035"><ele>370.3333333333333</ele><time>2026-04-02T12:23:45Z</time></trkpt><trkpt lat="43.965191779675315" lon="2.8898919251689272"><ele>370.6666666666667</ele><time>2026-04-02T12:23:46Z</time></trkpt><trkpt lat="43.965361097178025" lon="2.88995508915302"><ele>371.0</ele><time>2026-04-02T12:23:47Z</time></trkpt><trkpt lat="43.96552305091687" lon="2.89002469057552"><ele>379.0</ele><time>2026-04-02T12:23:48Z</time></trkpt><trkpt lat="43.96568811314621" lon="2.8900957167116084"><ele>387.0</ele><time>2026-04-02T12:23:49Z</time></trkpt><trkpt lat="43.96585380013173" lon="2.8901599429154974"><ele>395.0</ele><time>2026-04-02T12:23:50Z</time></trkpt><trkpt lat="43.96601994089397" lon="2.8902010209420927"><ele>395.0</ele><time>2026-04-02T12:23:51Z</time></trkpt><trkpt lat="43.96618843592628" lon="2.890192767588696"><ele>395.0</ele><time>2026-04-02T12:23:52Z</time></trkpt><trkpt lat="43.96634908260132" lon="2.890140366270971"><ele>395.0</ele><time>2026-04-02T12:23:53Z</time></trkpt><trkpt lat="43.96649417659232" lon="2.8900650899715927"><ele>391.75</ele><time>2026-04-02T12:23:54Z</time></trkpt><trkpt lat="43.966627043654356" lon="2.890045342296822"><ele>388.5</ele><time>2026-04-02T12:23:55Z</time></trkpt><trkpt lat="43.96674051928116" lon="2.8900339433280795"><ele>385.25</ele><time>2026-04-02T12:23:56Z</time></trkpt><trkpt lat="43.966836242695415" lon="2.890122399381384"><ele>382.0</ele><time>2026-04-02T12:23:57Z</time></trkpt><trkpt lat="43.966889963001044" lon="2.890243784247285"><ele>382.0</ele><time>2026-04-02T12:23:58Z</time></trkpt><trkpt lat="43.96693093715389" lon="2.890396095458678"><ele>382.0</ele><time>2026-04-02T12:23:59Z</time></trkpt><trkpt lat="43.96701546193514" lon="2.8905644483083535"><ele>382.0</ele><time>2026-04-02T12:24:00Z</time></trkpt><trkpt lat="43.967096836863284" lon="2.8907153831396526"><ele>382.0</ele><time>2026-04-02T12:24:01Z</time></trkpt><trkpt lat="43.96720815096926" lon="2.8908378656466422"><ele>384.66666666666663</ele><time>2026-04-02T12:24:02Z</time></trkpt><trkpt lat="43.96734717594797" lon="2.8909560543517476"><ele>387.3333333333333</ele><time>2026-04-02T12:24:03Z</time></trkpt><trkpt lat="43.96748464355022" lon="2.8910747599580704"><ele>390.0</ele><time>2026-04-02T12:24:04Z</time></trkpt><trkpt lat="43.9676232401268" lon="2.8911916800538306"><ele>390.0</ele><time>2026-04-02T12:24:05Z</time></trkpt><trkpt lat="43.967762740041344" lon="2.8912936547173764"><ele>390.0</ele><time>2026-04-02T12:24:06Z</time></trkpt><trkpt lat="43.96790398829029" lon="2.891391656810008"><ele>390.0</ele><time>2026-04-02T12:24:07Z</time></trkpt><trkpt lat="43.96803548210746" lon="2.89148926873373"><ele>390.0</ele><time>2026-04-02T12:24:08Z</time></trkpt><trkpt lat="43.96814690094723" lon="2.8916136290617005"><ele>390.0</ele><time>2026-04-02T12:24:09Z</time></trkpt><trkpt lat="43.968224149616994" lon="2.8918045356875615"><ele>390.0</ele><time>2026-04-02T12:24:10Z</time></trkpt><trkpt lat="43.96831910243884" lon="2.8919932054978084"><ele>393.75</ele><time>2026-04-02T12:24:11Z</time></trkpt><trkpt lat="43.96840978674458" lon="2.892150364504597"><ele>397.5</ele><time>2026-04-02T12:24:12Z</time></trkpt><trkpt lat="43.968481333156" lon="2.8922923039159025"><ele>401.25</ele><time>2026-04-02T12:24:13Z</time></trkpt><trkpt lat="43.96851529986721" lon="2.892433900639279"><ele>405.0</ele><time>2026-04-02T12:24:14Z</time></trkpt><trkpt lat="43.968533869036115" lon="2.892554069508934"><ele>407.0</ele><time>2026-04-02T12:24:15Z</time></trkpt><trkpt lat="43.96846748033189" lon="2.892658512531096"><ele>409.0</ele><time>2026-04-02T12:24:16Z</time></trkpt><trkpt lat="43.96837091276035" lon="2.8927267444930935"><ele>411.0</ele><time>2026-04-02T12:24:17Z</time></trkpt><trkpt lat="43.968248076097865" lon="2.8926888483617192"><ele>413.0</ele><time>2026-04-02T12:24:18Z</time></trkpt><trkpt lat="43.96812633584246" lon="2.892629144805627"><ele>408.66666666666663</ele><time>2026-04-02T12:24:19Z</time></trkpt><trkpt lat="43.96801912639029" lon="2.8925127583294548"><ele>404.33333333333337</ele><time>2026-04-02T12:24:20Z</time></trkpt><trkpt lat="43.96788209806999" lon="2.892377688814814"><ele>400.0</ele><time>2026-04-02T12:24:21Z</time></trkpt><trkpt lat="43.96775140998492" lon="2.89219918865434"><ele>400.0</ele><time>2026-04-02T12:24:22Z</time></trkpt><trkpt lat="43.96763451385275" lon="2.8920619509303687"><ele>400.0</ele><time>2026-04-02T12:24:23Z</time></trkpt><trkpt lat="43.967530685169976" lon="2.8919397657222077"><ele>400.0</ele><time>2026-04-02T12:24:24Z</time></trkpt><trkpt lat="43.96743981739082" lon="2.89182523623704"><ele>400.0</ele><time>2026-04-02T12:24:25Z</time></trkpt><trkpt lat="43.96735614657304" lon="2.891748050501325"><ele>399.6</ele><time>2026-04-02T12:24:26Z</time></trkpt><trkpt lat="43.96727849672207" lon="2.8917548673988835"><ele>399.2</ele><time>2026-04-02T12:24:27Z</time></trkpt><trkpt lat="43.96722764250974" lon="2.8918593901140937"><ele>398.79999999999995</ele><time>2026-04-02T12:24:28Z</time></trkpt><trkpt lat="43.96722432838483" lon="2.8920154295358906"><ele>398.4</ele><time>2026-04-02T12:24:29Z</time></trkpt><trkpt lat="43.96723075692175" lon="2.892201793210494"><ele>398.0</ele><time>2026-04-02T12:24:30Z</time></trkpt><trkpt lat="43.967228074300124" lon="2.8924152055421777"><ele>403.5</ele><time>2026-04-02T12:24:31Z</time></trkpt><trkpt lat="43.967215644761524" lon="2.8926086081615128"><ele>409.0</ele><time>2026-04-02T12:24:32Z</time></trkpt><trkpt lat="43.96720915530163" lon="2.892774612332236"><ele>414.5</ele><time>2026-04-02T12:24:33Z</time></trkpt><trkpt lat="43.96721792313445" lon="2.8929333750619186"><ele>420.0</ele><time>2026-04-02T12:24:34Z</time></trkpt><trkpt lat="43.967275816665264" lon="2.893071165984008"><ele>420.0</ele><time>2026-04-02T12:24:35Z</time></trkpt><trkpt lat="43.96738927279238" lon="2.8931215586355337"><ele>420.0</ele><time>2026-04-02T12:24:36Z</time></trkpt><trkpt lat="43.967517851220926" lon="2.893088005643192"><ele>420.0</ele><time>2026-04-02T12:24:37Z</time></trkpt><trkpt lat="43.96764607961835" lon="2.8930538645560864"><ele>420.0</ele><time>2026-04-02T12:24:38Z</time></trkpt><trkpt lat="43.96775173288821" lon="2.893077400937986"><ele>418.25</ele><time>2026-04-02T12:24:39Z</time></trkpt><trkpt lat="43.96782686484207" lon="2.8931931243177584"><ele>416.5</ele><time>2026-04-02T12:24:40Z</time></trkpt><trkpt lat="43.96789017087557" lon="2.893357880090602"><ele>414.75</ele><time>2026-04-02T12:24:41Z</time></trkpt><trkpt lat="43.96799897367822" lon="2.8935319613041863"><ele>413.0</ele><time>2026-04-02T12:24:42Z</time></trkpt><trkpt lat="43.96809936798417" lon="2.893725653334594"><ele>417.66666666666663</ele><time>2026-04-02T12:24:43Z</time></trkpt><trkpt lat="43.968226941456486" lon="2.893909495684616"><ele>422.33333333333337</ele><time>2026-04-02T12:24:44Z</time></trkpt><trkpt lat="43.96838713666347" lon="2.8940720827562645"><ele>427.0</ele><time>2026-04-02T12:24:45Z</time></trkpt><trkpt lat="43.96855707830665" lon="2.8942038796690372"><ele>430.33333333333337</ele><time>2026-04-02T12:24:46Z</time></trkpt><trkpt lat="43.96870585675422" lon="2.894362239044454"><ele>433.66666666666663</ele><time>2026-04-02T12:24:47Z</time></trkpt><trkpt lat="43.96882476114651" lon="2.894537307738417"><ele>437.0</ele><time>2026-04-02T12:24:48Z</time></trkpt><trkpt lat="43.96896493841735" lon="2.89470974059956"><ele>437.0</ele><time>2026-04-02T12:24:49Z</time></trkpt><trkpt lat="43.96909018261461" lon="2.8949003297568696"><ele>437.0</ele><time>2026-04-02T12:24:50Z</time></trkpt><trkpt lat="43.96922288854042" lon="2.8950887106175243"><ele>437.0</ele><time>2026-04-02T12:24:51Z</time></trkpt><trkpt lat="43.96933549310523" lon="2.895289852907585"><ele>438.3333333333333</ele><time>2026-04-02T12:24:52Z</time></trkpt><trkpt lat="43.96945427313166" lon="2.8954818261946396"><ele>439.66666666666663</ele><time>2026-04-02T12:24:53Z</time></trkpt><trkpt lat="43.96958234391914" lon="2.89566472889788"><ele>441.0</ele><time>2026-04-02T12:24:54Z</time></trkpt><trkpt lat="43.96969928012345" lon="2.895858832401493"><ele>441.0</ele><time>2026-04-02T12:24:55Z</time></trkpt><trkpt lat="43.96983087883443" lon="2.8960453616084303"><ele>441.0</ele><time>2026-04-02T12:24:56Z</time></trkpt><trkpt lat="43.96998511092306" lon="2.896213504316094"><ele>441.0</ele><time>2026-04-02T12:24:57Z</time></trkpt><trkpt lat="43.97014678203501" lon="2.896346958426359"><ele>441.0</ele><time>2026-04-02T12:24:58Z</time></trkpt><trkpt lat="43.970313524505656" lon="2.8964560146615037"><ele>441.0</ele><time>2026-04-02T12:24:59Z</time></trkpt><trkpt lat="43.97044907528986" lon="2.8966144844948705"><ele>441.0</ele><time>2026-04-02T12:25:00Z</time></trkpt><trkpt lat="43.97053884742389" lon="2.8967800717886583"><ele>445.0</ele><time>2026-04-02T12:25:01Z</time></trkpt><trkpt lat="43.97060586564041" lon="2.896965138566388"><ele>449.0</ele><time>2026-04-02T12:25:02Z</time></trkpt><trkpt lat="43.970625054870126" lon="2.89717411799208"><ele>453.0</ele><time>2026-04-02T12:25:03Z</time></trkpt><trkpt lat="43.97067126548812" lon="2.897390576566307"><ele>456.33333333333337</ele><time>2026-04-02T12:25:04Z</time></trkpt><trkpt lat="43.970741491008624" lon="2.8976115106132196"><ele>459.6666666666667</ele><time>2026-04-02T12:25:05Z</time></trkpt><trkpt lat="43.97085583378326" lon="2.897809647488286"><ele>463.0</ele><time>2026-04-02T12:25:06Z</time></trkpt><trkpt lat="43.970964810585336" lon="2.897982477769045"><ele>463.0</ele><time>2026-04-02T12:25:07Z</time></trkpt><trkpt lat="43.971060865590744" lon="2.898137422750002"><ele>463.0</ele><time>2026-04-02T12:25:08Z</time></trkpt><trkpt lat="43.97120038464933" lon="2.898252075936804"><ele>463.0</ele><time>2026-04-02T12:25:09Z</time></trkpt><trkpt lat="43.9713808741921" lon="2.8983080936976706"><ele>463.0</ele><time>2026-04-02T12:25:10Z</time></trkpt><trkpt lat="43.97158161840361" lon="2.898359165396706"><ele>463.0</ele><time>2026-04-02T12:25:11Z</time></trkpt><trkpt lat="43.971783611868005" lon="2.8984579047468886"><ele>463.0</ele><time>2026-04-02T12:25:12Z</time></trkpt><trkpt lat="43.97198339189847" lon="2.8985175819717184"><ele>467.6666666666667</ele><time>2026-04-02T12:25:13Z</time></trkpt><trkpt lat="43.9721776962287" lon="2.898582611255497"><ele>472.33333333333337</ele><time>2026-04-02T12:25:14Z</time></trkpt><trkpt lat="43.972372264961756" lon="2.8986058776987633"><ele>477.0</ele><time>2026-04-02T12:25:15Z</time></trkpt><trkpt lat="43.97256546520165" lon="2.898614179839608"><ele>477.0</ele><time>2026-04-02T12:25:16Z</time></trkpt><trkpt lat="43.9727560018871" lon="2.8986318550054175"><ele>477.0</ele><time>2026-04-02T12:25:17Z</time></trkpt><trkpt lat="43.97293772216225" lon="2.8986440086178935"><ele>477.0</ele><time>2026-04-02T12:25:18Z</time></trkpt><trkpt lat="43.97309830545125" lon="2.898640773075988"><ele>477.0</ele><time>2026-04-02T12:25:19Z</time></trkpt><trkpt lat="43.97324455806423" lon="2.8986354515603443"><ele>477.0</ele><time>2026-04-02T12:25:20Z</time></trkpt><trkpt lat="43.973371724252935" lon="2.89863659550637"><ele>477.0</ele><time>2026-04-02T12:25:21Z</time></trkpt><trkpt lat="43.9734891990866" lon="2.8986079379131495"><ele>477.0</ele><time>2026-04-02T12:25:22Z</time></trkpt><trkpt lat="43.97360171376787" lon="2.8985198968907104"><ele>474.0</ele><time>2026-04-02T12:25:23Z</time></trkpt><trkpt lat="43.973702223631165" lon="2.8983639986325174"><ele>471.0</ele><time>2026-04-02T12:25:24Z</time></trkpt><trkpt lat="43.973791459736134" lon="2.898169389875948"><ele>468.0</ele><time>2026-04-02T12:25:25Z</time></trkpt><trkpt lat="43.97390864125895" lon="2.898014427952259"><ele>468.0</ele><time>2026-04-02T12:25:26Z</time></trkpt><trkpt lat="43.974036332014435" lon="2.897943198419033"><ele>468.0</ele><time>2026-04-02T12:25:27Z</time></trkpt><trkpt lat="43.974160533765996" lon="2.8979430766634646"><ele>468.0</ele><time>2026-04-02T12:25:28Z</time></trkpt><trkpt lat="43.97428753002082" lon="2.898003137598013"><ele>468.0</ele><time>2026-04-02T12:25:29Z</time></trkpt><trkpt lat="43.97443637386214" lon="2.8980918321489306"><ele>470.33333333333337</ele><time>2026-04-02T12:25:30Z</time></trkpt><trkpt lat="43.97461362412668" lon="2.8981769818640966"><ele>472.6666666666667</ele><time>2026-04-02T12:25:31Z</time></trkpt><trkpt lat="43.97479799776989" lon="2.898294007513244"><ele>475.0</ele><time>2026-04-02T12:25:32Z</time></trkpt><trkpt lat="43.97498432292506" lon="2.898404537815001"><ele>476.33333333333337</ele><time>2026-04-02T12:25:33Z</time></trkpt><trkpt lat="43.97517160112203" lon="2.8985042585543104"><ele>477.66666666666663</ele><time>2026-04-02T12:25:34Z</time></trkpt><trkpt lat="43.975382998868525" lon="2.8985546102271473"><ele>479.0</ele><time>2026-04-02T12:25:35Z</time></trkpt><trkpt lat="43.97560103615797" lon="2.8985721944718383"><ele>479.0</ele><time>2026-04-02T12:25:36Z</time></trkpt><trkpt lat="43.97580749729908" lon="2.8985974034946045"><ele>479.0</ele><time>2026-04-02T12:25:37Z</time></trkpt><trkpt lat="43.9760116989295" lon="2.8986197677806507"><ele>479.0</ele><time>2026-04-02T12:25:38Z</time></trkpt><trkpt lat="43.97621546226366" lon="2.8986237903750776"><ele>480.0</ele><time>2026-04-02T12:25:39Z</time></trkpt><trkpt lat="43.97641935032151" lon="2.8985997004095942"><ele>481.0</ele><time>2026-04-02T12:25:40Z</time></trkpt><trkpt lat="43.97661736441111" lon="2.8985247642345655"><ele>482.0</ele><time>2026-04-02T12:25:41Z</time></trkpt><trkpt lat="43.97681195214067" lon="2.8984122929228477"><ele>482.0</ele><time>2026-04-02T12:25:42Z</time></trkpt><trkpt lat="43.97700670220804" lon="2.8983052419915483"><ele>482.0</ele><time>2026-04-02T12:25:43Z</time></trkpt><trkpt lat="43.97720510284452" lon="2.898232891141275"><ele>482.0</ele><time>2026-04-02T12:25:44Z</time></trkpt><trkpt lat="43.97740528481234" lon="2.898230531905082"><ele>484.0</ele><time>2026-04-02T12:25:45Z</time></trkpt><trkpt lat="43.9776119090341" lon="2.8982411658817355"><ele>486.0</ele><time>2026-04-02T12:25:46Z</time></trkpt><trkpt lat="43.977819762926465" lon="2.8982407391363583"><ele>488.0</ele><time>2026-04-02T12:25:47Z</time></trkpt><trkpt lat="43.97802840088345" lon="2.8982726216640997"><ele>488.0</ele><time>2026-04-02T12:25:48Z</time></trkpt><trkpt lat="43.9782489281339" lon="2.898289458523461"><ele>488.0</ele><time>2026-04-02T12:25:49Z</time></trkpt><trkpt lat="43.978464239567394" lon="2.8983376648993975"><ele>488.0</ele><time>2026-04-02T12:25:50Z</time></trkpt><trkpt lat="43.97867781569099" lon="2.8984326870269363"><ele>486.3333333333333</ele><time>2026-04-02T12:25:51Z</time></trkpt><trkpt lat="43.97888210507769" lon="2.898570946976397"><ele>484.66666666666663</ele><time>2026-04-02T12:25:52Z</time></trkpt><trkpt lat="43.979033048523455" lon="2.8987924868889374"><ele>483.0</ele><time>2026-04-02T12:25:53Z</time></trkpt><trkpt lat="43.97917728218458" lon="2.89902309200257"><ele>484.0</ele><time>2026-04-02T12:25:54Z</time></trkpt><trkpt lat="43.979328487988774" lon="2.8992367815826987"><ele>485.0</ele><time>2026-04-02T12:25:55Z</time></trkpt><trkpt lat="43.97946631821689" lon="2.8994573203230134"><ele>486.0</ele><time>2026-04-02T12:25:56Z</time></trkpt><trkpt lat="43.979631031345754" lon="2.89960410340694"><ele>486.0</ele><time>2026-04-02T12:25:57Z</time></trkpt><trkpt lat="43.979821134851065" lon="2.899649978704696"><ele>486.0</ele><time>2026-04-02T12:25:58Z</time></trkpt><trkpt lat="43.979999337650575" lon="2.899748467330988"><ele>486.0</ele><time>2026-04-02T12:25:59Z</time></trkpt><trkpt lat="43.98013522121706" lon="2.899932769713632"><ele>489.33333333333337</ele><time>2026-04-02T12:26:00Z</time></trkpt><trkpt lat="43.98024133267348" lon="2.900148321507402"><ele>492.6666666666667</ele><time>2026-04-02T12:26:01Z</time></trkpt><trkpt lat="43.98033451753279" lon="2.900386587042171"><ele>496.0</ele><time>2026-04-02T12:26:02Z</time></trkpt><trkpt lat="43.98042732215934" lon="2.900596503199827"><ele>496.0</ele><time>2026-04-02T12:26:03Z</time></trkpt><trkpt lat="43.980495749416775" lon="2.9007926191597266"><ele>496.0</ele><time>2026-04-02T12:26:04Z</time></trkpt><trkpt lat="43.98059140721112" lon="2.900951421964845"><ele>496.0</ele><time>2026-04-02T12:26:05Z</time></trkpt><trkpt lat="43.98073495612116" lon="2.9010298233848073"><ele>498.0</ele><time>2026-04-02T12:26:06Z</time></trkpt><trkpt lat="43.98092110619002" lon="2.901042404102978"><ele>500.0</ele><time>2026-04-02T12:26:07Z</time></trkpt><trkpt lat="43.981114179320976" lon="2.901049643089713"><ele>502.0</ele><time>2026-04-02T12:26:08Z</time></trkpt><trkpt lat="43.9812717310841" lon="2.90117262293085"><ele>502.0</ele><time>2026-04-02T12:26:09Z</time></trkpt><trkpt lat="43.981425170661055" lon="2.901337856397923"><ele>502.0</ele><time>2026-04-02T12:26:10Z</time></trkpt><trkpt lat="43.981592518380005" lon="2.9015201490175992"><ele>502.0</ele><time>2026-04-02T12:26:11Z</time></trkpt><trkpt lat="43.98174327752945" lon="2.9017570763466622"><ele>507.6666666666667</ele><time>2026-04-02T12:26:12Z</time></trkpt><trkpt lat="43.98186645195314" lon="2.902014253646796"><ele>513.3333333333334</ele><time>2026-04-02T12:26:13Z</time></trkpt><trkpt lat="43.98197115286897" lon="2.9022772807091304"><ele>519.0</ele><time>2026-04-02T12:26:14Z</time></trkpt><trkpt lat="43.98206559187271" lon="2.9024981868961595"><ele>514.3333333333334</ele><time>2026-04-02T12:26:15Z</time></trkpt><trkpt lat="43.98214689839152" lon="2.9026935776992913"><ele>509.6666666666667</ele><time>2026-04-02T12:26:16Z</time></trkpt><trkpt lat="43.982286264481594" lon="2.9028710128229327"><ele>505.0</ele><time>2026-04-02T12:26:17Z</time></trkpt><trkpt lat="43.98245659455441" lon="2.9030351000696872"><ele>503.6666666666667</ele><time>2026-04-02T12:26:18Z</time></trkpt><trkpt lat="43.98260362390081" lon="2.903221836595781"><ele>502.33333333333337</ele><time>2026-04-02T12:26:19Z</time></trkpt><trkpt lat="43.98273388997789" lon="2.903392645770815"><ele>501.0</ele><time>2026-04-02T12:26:20Z</time></trkpt><trkpt lat="43.98288157786019" lon="2.9034867445820036"><ele>501.0</ele><time>2026-04-02T12:26:21Z</time></trkpt><trkpt lat="43.98305019565624" lon="2.903519721242931"><ele>501.0</ele><time>2026-04-02T12:26:22Z</time></trkpt><trkpt lat="43.98322374604897" lon="2.903483186517872"><ele>501.0</ele><time>2026-04-02T12:26:23Z</time></trkpt><trkpt lat="43.98338883834829" lon="2.903402076833751"><ele>503.33333333333337</ele><time>2026-04-02T12:26:24Z</time></trkpt><trkpt lat="43.98354441221577" lon="2.903254662760592"><ele>505.6666666666667</ele><time>2026-04-02T12:26:25Z</time></trkpt><trkpt lat="43.98370934102475" lon="2.903078080166665"><ele>508.0</ele><time>2026-04-02T12:26:26Z</time></trkpt><trkpt lat="43.98390040026609" lon="2.9029185424936235"><ele>508.0</ele><time>2026-04-02T12:26:27Z</time></trkpt><trkpt lat="43.98411188302588" lon="2.9028245423973416"><ele>508.0</ele><time>2026-04-02T12:26:28Z</time></trkpt><trkpt lat="43.98433493185341" lon="2.9027235335263764"><ele>509.6666666666667</ele><time>2026-04-02T12:26:29Z</time></trkpt><trkpt lat="43.984540394880916" lon="2.9026097402395674"><ele>511.33333333333337</ele><time>2026-04-02T12:26:30Z</time></trkpt><trkpt lat="43.984723402634906" lon="2.902493841377126"><ele>513.0</ele><time>2026-04-02T12:26:31Z</time></trkpt><trkpt lat="43.98489874566452" lon="2.902372050228381"><ele>515.3333333333334</ele><time>2026-04-02T12:26:32Z</time></trkpt><trkpt lat="43.98507537316329" lon="2.902358305485764"><ele>517.6666666666667</ele><time>2026-04-02T12:26:33Z</time></trkpt><trkpt lat="43.98524126963649" lon="2.9023754939368307"><ele>520.0</ele><time>2026-04-02T12:26:34Z</time></trkpt><trkpt lat="43.98541346119973" lon="2.902354721842256"><ele>520.0</ele><time>2026-04-02T12:26:35Z</time></trkpt><trkpt lat="43.98558983218425" lon="2.9022987600513184"><ele>520.0</ele><time>2026-04-02T12:26:36Z</time></trkpt><trkpt lat="43.98574543316465" lon="2.902182978576261"><ele>520.0</ele><time>2026-04-02T12:26:37Z</time></trkpt><trkpt lat="43.98593059185285" lon="2.902012613689987"><ele>519.6666666666667</ele><time>2026-04-02T12:26:38Z</time></trkpt><trkpt lat="43.98613933172194" lon="2.901902277787299"><ele>519.3333333333334</ele><time>2026-04-02T12:26:39Z</time></trkpt><trkpt lat="43.9863413823829" lon="2.901867136696335"><ele>519.0</ele><time>2026-04-02T12:26:40Z</time></trkpt><trkpt lat="43.98653677553008" lon="2.9019027986639134"><ele>519.6666666666666</ele><time>2026-04-02T12:26:41Z</time></trkpt><trkpt lat="43.986735105945726" lon="2.901912021783741"><ele>520.3333333333333</ele><time>2026-04-02T12:26:42Z</time></trkpt><trkpt lat="43.98694732166399" lon="2.9019157408088385"><ele>521.0</ele><time>2026-04-02T12:26:43Z</time></trkpt><trkpt lat="43.987167154009654" lon="2.9018696317079424"><ele>521.0</ele><time>2026-04-02T12:26:44Z</time></trkpt><trkpt lat="43.98740164713411" lon="2.9018336300988494"><ele>521.0</ele><time>2026-04-02T12:26:45Z</time></trkpt><trkpt lat="43.98762702283755" lon="2.9017962045140484"><ele>530.0</ele><time>2026-04-02T12:26:46Z</time></trkpt><trkpt lat="43.98783163099566" lon="2.9017478917929918"><ele>539.0</ele><time>2026-04-02T12:26:47Z</time></trkpt><trkpt lat="43.98803380865964" lon="2.9017010924750237"><ele>548.0</ele><time>2026-04-02T12:26:48Z</time></trkpt><trkpt lat="43.98823841950451" lon="2.9017382429933716"><ele>546.3333333333333</ele><time>2026-04-02T12:26:49Z</time></trkpt><trkpt lat="43.98843866122755" lon="2.901718457287046"><ele>544.6666666666666</ele><time>2026-04-02T12:26:50Z</time></trkpt><trkpt lat="43.98863384782091" lon="2.9016756198532114"><ele>543.0</ele><time>2026-04-02T12:26:51Z</time></trkpt><trkpt lat="43.98883427568572" lon="2.9015918285477005"><ele>543.0</ele><time>2026-04-02T12:26:52Z</time></trkpt><trkpt lat="43.98903202166443" lon="2.9014968137268413"><ele>543.0</ele><time>2026-04-02T12:26:53Z</time></trkpt><trkpt lat="43.98922938003729" lon="2.9014023833849185"><ele>543.0</ele><time>2026-04-02T12:26:54Z</time></trkpt><trkpt lat="43.98942582031323" lon="2.901316793049091"><ele>540.3333333333334</ele><time>2026-04-02T12:26:55Z</time></trkpt><trkpt lat="43.989610218058665" lon="2.9012332558819733"><ele>537.6666666666667</ele><time>2026-04-02T12:26:56Z</time></trkpt><trkpt lat="43.989784974352936" lon="2.9011394666036923"><ele>535.0</ele><time>2026-04-02T12:26:57Z</time></trkpt><trkpt lat="43.98994596994414" lon="2.901004962465367"><ele>535.3333333333334</ele><time>2026-04-02T12:26:58Z</time></trkpt><trkpt lat="43.9901058578189" lon="2.9008163018215694"><ele>535.6666666666666</ele><time>2026-04-02T12:26:59Z</time></trkpt><trkpt lat="43.99025830153013" lon="2.9006160014949756"><ele>536.0</ele><time>2026-04-02T12:27:00Z</time></trkpt><trkpt lat="43.990408717076434" lon="2.9004211587961755"><ele>536.0</ele><time>2026-04-02T12:27:01Z</time></trkpt><trkpt lat="43.99055060569753" lon="2.900228498200534"><ele>536.0</ele><time>2026-04-02T12:27:02Z</time></trkpt><trkpt lat="43.990686151000126" lon="2.900029769673372"><ele>536.0</ele><time>2026-04-02T12:27:03Z</time></trkpt><trkpt lat="43.99081790634163" lon="2.8998290636479944"><ele>538.0</ele><time>2026-04-02T12:27:04Z</time></trkpt><trkpt lat="43.99093788004571" lon="2.8996383187767805"><ele>540.0</ele><time>2026-04-02T12:27:05Z</time></trkpt><trkpt lat="43.991046448177435" lon="2.8994634952144045"><ele>542.0</ele><time>2026-04-02T12:27:06Z</time></trkpt><trkpt lat="43.99114989496725" lon="2.8993108628477384"><ele>549.25</ele><time>2026-04-02T12:27:07Z</time></trkpt><trkpt lat="43.991262779043446" lon="2.8992095080986506"><ele>556.5</ele><time>2026-04-02T12:27:08Z</time></trkpt><trkpt lat="43.99137140643591" lon="2.899134441544996"><ele>563.75</ele><time>2026-04-02T12:27:09Z</time></trkpt><trkpt lat="43.99148908079731" lon="2.899132259157533"><ele>571.0</ele><time>2026-04-02T12:27:10Z</time></trkpt><trkpt lat="43.991636925406574" lon="2.899155559626689"><ele>575.0</ele><time>2026-04-02T12:27:11Z</time></trkpt><trkpt lat="43.991805065329594" lon="2.899151184358499"><ele>579.0</ele><time>2026-04-02T12:27:12Z</time></trkpt><trkpt lat="43.991960986106996" lon="2.8991356515522853"><ele>583.0</ele><time>2026-04-02T12:27:13Z</time></trkpt><trkpt lat="43.99209366958264" lon="2.899172256105101"><ele>576.75</ele><time>2026-04-02T12:27:14Z</time></trkpt><trkpt lat="43.99219456244663" lon="2.8992748687414003"><ele>570.5</ele><time>2026-04-02T12:27:15Z</time></trkpt><trkpt lat="43.99231439330815" lon="2.899363731396233"><ele>564.25</ele><time>2026-04-02T12:27:16Z</time></trkpt><trkpt lat="43.992418604418894" lon="2.8994666304688637"><ele>558.0</ele><time>2026-04-02T12:27:17Z</time></trkpt><trkpt lat="43.99252910421602" lon="2.89951627822148"><ele>558.0</ele><time>2026-04-02T12:27:18Z</time></trkpt><trkpt lat="43.99266931493076" lon="2.8995018472979686"><ele>558.0</ele><time>2026-04-02T12:27:19Z</time></trkpt><trkpt lat="43.992816254861914" lon="2.8994199853822376"><ele>558.0</ele><time>2026-04-02T12:27:20Z</time></trkpt><trkpt lat="43.992969101971426" lon="2.8993117907310486"><ele>563.3333333333334</ele><time>2026-04-02T12:27:21Z</time></trkpt><trkpt lat="43.99314255175696" lon="2.899215708939219"><ele>568.6666666666667</ele><time>2026-04-02T12:27:22Z</time></trkpt><trkpt lat="43.993334478974994" lon="2.8991374023614433"><ele>574.0</ele><time>2026-04-02T12:27:23Z</time></trkpt><trkpt lat="43.99353059256185" lon="2.8990798104704276"><ele>574.0</ele><time>2026-04-02T12:27:24Z</time></trkpt><trkpt lat="43.9937189167559" lon="2.899041500811662"><ele>574.0</ele><time>2026-04-02T12:27:25Z</time></trkpt><trkpt lat="43.993911193087676" lon="2.8990054071011166"><ele>574.0</ele><time>2026-04-02T12:27:26Z</time></trkpt><trkpt lat="43.99409350116371" lon="2.898968881021632"><ele>578.0</ele><time>2026-04-02T12:27:27Z</time></trkpt><trkpt lat="43.99426281323692" lon="2.8989151239010202"><ele>582.0</ele><time>2026-04-02T12:27:28Z</time></trkpt><trkpt lat="43.994424183590894" lon="2.8988485301005618"><ele>586.0</ele><time>2026-04-02T12:27:29Z</time></trkpt><trkpt lat="43.99458572343979" lon="2.898799764464993"><ele>586.0</ele><time>2026-04-02T12:27:30Z</time></trkpt><trkpt lat="43.994755991122446" lon="2.898802714397531"><ele>586.0</ele><time>2026-04-02T12:27:31Z</time></trkpt><trkpt lat="43.99491829768292" lon="2.8988744881742985"><ele>586.0</ele><time>2026-04-02T12:27:32Z</time></trkpt><trkpt lat="43.995073051569776" lon="2.89898899097463"><ele>589.6666666666667</ele><time>2026-04-02T12:27:33Z</time></trkpt><trkpt lat="43.99521325613673" lon="2.8991259867310797"><ele>593.3333333333334</ele><time>2026-04-02T12:27:34Z</time></trkpt><trkpt lat="43.99535323391235" lon="2.8992506362479986"><ele>597.0</ele><time>2026-04-02T12:27:35Z</time></trkpt><trkpt lat="43.9955045992444" lon="2.8993244837381837"><ele>597.0</ele><time>2026-04-02T12:27:36Z</time></trkpt><trkpt lat="43.99566775863819" lon="2.899354121017703"><ele>597.0</ele><time>2026-04-02T12:27:37Z</time></trkpt><trkpt lat="43.99584347999408" lon="2.899331667352616"><ele>597.0</ele><time>2026-04-02T12:27:38Z</time></trkpt><trkpt lat="43.996015056826934" lon="2.8992694337808937"><ele>598.6666666666666</ele><time>2026-04-02T12:27:39Z</time></trkpt><trkpt lat="43.996187193452535" lon="2.8992112776155037"><ele>600.3333333333333</ele><time>2026-04-02T12:27:40Z</time></trkpt><trkpt lat="43.99635943288125" lon="2.8991942449950137"><ele>602.0</ele><time>2026-04-02T12:27:41Z</time></trkpt><trkpt lat="43.99650324146112" lon="2.8992492778061285"><ele>602.0</ele><time>2026-04-02T12:27:42Z</time></trkpt><trkpt lat="43.99662705500849" lon="2.89934072456576"><ele>602.0</ele><time>2026-04-02T12:27:43Z</time></trkpt><trkpt lat="43.99673451605343" lon="2.8994590574090537"><ele>602.0</ele><time>2026-04-02T12:27:44Z</time></trkpt><trkpt lat="43.996817277796076" lon="2.8996059839595145"><ele>602.0</ele><time>2026-04-02T12:27:45Z</time></trkpt><trkpt lat="43.996898463440495" lon="2.8997338008386158"><ele>604.0</ele><time>2026-04-02T12:27:46Z</time></trkpt><trkpt lat="43.997007765324696" lon="2.8997961732149093"><ele>606.0</ele><time>2026-04-02T12:27:47Z</time></trkpt><trkpt lat="43.997142655929146" lon="2.899771519719655"><ele>608.0</ele><time>2026-04-02T12:27:48Z</time></trkpt><trkpt lat="43.997278128858916" lon="2.8996873548962445"><ele>610.0</ele><time>2026-04-02T12:27:49Z</time></trkpt><trkpt lat="43.997400939704" lon="2.899575317465955"><ele>611.0</ele><time>2026-04-02T12:27:50Z</time></trkpt><trkpt lat="43.99752154967203" lon="2.8994633440785265"><ele>612.0</ele><time>2026-04-02T12:27:51Z</time></trkpt><trkpt lat="43.99765456574367" lon="2.8993645313167358"><ele>613.0</ele><time>2026-04-02T12:27:52Z</time></trkpt><trkpt lat="43.99780690273458" lon="2.8992992565021845"><ele>613.0</ele><time>2026-04-02T12:27:53Z</time></trkpt><trkpt lat="43.99797581392736" lon="2.899275087476493"><ele>613.0</ele><time>2026-04-02T12:27:54Z</time></trkpt><trkpt lat="43.998136432858665" lon="2.899297297317856"><ele>613.0</ele><time>2026-04-02T12:27:55Z</time></trkpt><trkpt lat="43.998297239949096" lon="2.8992883082897536"><ele>613.6666666666667</ele><time>2026-04-02T12:27:56Z</time></trkpt><trkpt lat="43.998444617751346" lon="2.8991860867396144"><ele>614.3333333333334</ele><time>2026-04-02T12:27:57Z</time></trkpt><trkpt lat="43.99857049997796" lon="2.899021627995285"><ele>615.0</ele><time>2026-04-02T12:27:58Z</time></trkpt><trkpt lat="43.998695626852914" lon="2.898852361772311"><ele>615.0</ele><time>2026-04-02T12:27:59Z</time></trkpt><trkpt lat="43.99882116194948" lon="2.8986816308923875"><ele>615.0</ele><time>2026-04-02T12:28:00Z</time></trkpt><trkpt lat="43.998944809197255" lon="2.8985020178885654"><ele>615.0</ele><time>2026-04-02T12:28:01Z</time></trkpt><trkpt lat="43.99906157519218" lon="2.8983169492359195"><ele>617.0</ele><time>2026-04-02T12:28:02Z</time></trkpt><trkpt lat="43.999175107618925" lon="2.8981388916466253"><ele>619.0</ele><time>2026-04-02T12:28:03Z</time></trkpt><trkpt lat="43.999288561942365" lon="2.897973196985865"><ele>621.0</ele><time>2026-04-02T12:28:04Z</time></trkpt><trkpt lat="43.99940107317346" lon="2.8978125499498977"><ele>621.0</ele><time>2026-04-02T12:28:05Z</time></trkpt><trkpt lat="43.99951044510705" lon="2.897656221970426"><ele>621.0</ele><time>2026-04-02T12:28:06Z</time></trkpt><trkpt lat="43.999621130391475" lon="2.8975068077529538"><ele>621.0</ele><time>2026-04-02T12:28:07Z</time></trkpt><trkpt lat="43.99973771070661" lon="2.897366301141358"><ele>621.6666666666666</ele><time>2026-04-02T12:28:08Z</time></trkpt><trkpt lat="43.999866690869" lon="2.8972355240456618"><ele>622.3333333333333</ele><time>2026-04-02T12:28:09Z</time></trkpt><trkpt lat="44.000010156260785" lon="2.897120552201878"><ele>623.0</ele><time>2026-04-02T12:28:10Z</time></trkpt><trkpt lat="44.00016881292901" lon="2.89701320260232"><ele>623.0</ele><time>2026-04-02T12:28:11Z</time></trkpt><trkpt lat="44.00034113721267" lon="2.8968785859571033"><ele>623.0</ele><time>2026-04-02T12:28:12Z</time></trkpt><trkpt lat="44.00051037031392" lon="2.8967202845158053"><ele>623.0</ele><time>2026-04-02T12:28:13Z</time></trkpt><trkpt lat="44.000673345009865" lon="2.896558774016572"><ele>624.3333333333333</ele><time>2026-04-02T12:28:14Z</time></trkpt><trkpt lat="44.00082879690892" lon="2.896406427841088"><ele>625.6666666666666</ele><time>2026-04-02T12:28:15Z</time></trkpt><trkpt lat="44.000978173783004" lon="2.8962604646290457"><ele>627.0</ele><time>2026-04-02T12:28:16Z</time></trkpt><trkpt lat="44.00112033472704" lon="2.896117066483855"><ele>627.0</ele><time>2026-04-02T12:28:17Z</time></trkpt><trkpt lat="44.00126000658703" lon="2.895977886821146"><ele>627.0</ele><time>2026-04-02T12:28:18Z</time></trkpt><trkpt lat="44.00139398430989" lon="2.895842031108746"><ele>627.0</ele><time>2026-04-02T12:28:19Z</time></trkpt><trkpt lat="44.001520839707574" lon="2.895705799901701"><ele>628.0</ele><time>2026-04-02T12:28:20Z</time></trkpt><trkpt lat="44.0016514530972" lon="2.89558000730118"><ele>629.0</ele><time>2026-04-02T12:28:21Z</time></trkpt><trkpt lat="44.00178349477107" lon="2.8954867180742894"><ele>630.0</ele><time>2026-04-02T12:28:22Z</time></trkpt><trkpt lat="44.00191929948674" lon="2.89542904135274"><ele>631.0</ele><time>2026-04-02T12:28:23Z</time></trkpt><trkpt lat="44.002078051900206" lon="2.8954168070034076"><ele>631.0</ele><time>2026-04-02T12:28:24Z</time></trkpt><trkpt lat="44.0022602347614" lon="2.8954893192165057"><ele>631.0</ele><time>2026-04-02T12:28:25Z</time></trkpt><trkpt lat="44.00247661858578" lon="2.8955596286617666"><ele>631.0</ele><time>2026-04-02T12:28:26Z</time></trkpt><trkpt lat="44.00270462910595" lon="2.8956303332369737"><ele>632.3333333333334</ele><time>2026-04-02T12:28:27Z</time></trkpt><trkpt lat="44.00292693695422" lon="2.8957016778318234"><ele>633.6666666666666</ele><time>2026-04-02T12:28:28Z</time></trkpt><trkpt lat="44.003126156162644" lon="2.895755324648797"><ele>635.0</ele><time>2026-04-02T12:28:29Z</time></trkpt><trkpt lat="44.00328852976819" lon="2.8958098625946413"><ele>635.6</ele><time>2026-04-02T12:28:30Z</time></trkpt><trkpt lat="44.00340410503945" lon="2.8958442946393874"><ele>636.2</ele><time>2026-04-02T12:28:31Z</time></trkpt><trkpt lat="44.00348571764884" lon="2.8958666991254685"><ele>636.8</ele><time>2026-04-02T12:28:32Z</time></trkpt><trkpt lat="44.00355161615557" lon="2.8959570595161863"><ele>637.4</ele><time>2026-04-02T12:28:34Z</time></trkpt><trkpt lat="44.00348546670758" lon="2.896100837579631"><ele>638.0</ele><time>2026-04-02T12:28:36Z</time></trkpt><trkpt lat="44.00341458382142" lon="2.896245843286667"><ele>638.0</ele><time>2026-04-02T12:28:37Z</time></trkpt><trkpt lat="44.00329659434526" lon="2.8964075708518746"><ele>638.0</ele><time>2026-04-02T12:28:38Z</time></trkpt><trkpt lat="44.00317418961525" lon="2.8965893639562896"><ele>638.0</ele><time>2026-04-02T12:28:39Z</time></trkpt><trkpt lat="44.00303847087182" lon="2.8968028756952893"><ele>638.0</ele><time>2026-04-02T12:28:40Z</time></trkpt><trkpt lat="44.002884291740735" lon="2.8970385996049814"><ele>638.0</ele><time>2026-04-02T12:28:41Z</time></trkpt><trkpt lat="44.002726862512134" lon="2.897281727397911"><ele>638.0</ele><time>2026-04-02T12:28:42Z</time></trkpt><trkpt lat="44.00255505082794" lon="2.897549003965043"><ele>638.0</ele><time>2026-04-02T12:28:43Z</time></trkpt><trkpt lat="44.00237752740936" lon="2.8978277464690523"><ele>638.0</ele><time>2026-04-02T12:28:44Z</time></trkpt><trkpt lat="44.00222073850265" lon="2.8980883544650444"><ele>638.0</ele><time>2026-04-02T12:28:45Z</time></trkpt><trkpt lat="44.002099918863244" lon="2.89836431228959"><ele>637.5</ele><time>2026-04-02T12:28:46Z</time></trkpt><trkpt lat="44.00201964356484" lon="2.8986713671168483"><ele>637.0</ele><time>2026-04-02T12:28:47Z</time></trkpt><trkpt lat="44.00197372669661" lon="2.8990105768699572"><ele>637.0</ele><time>2026-04-02T12:28:48Z</time></trkpt><trkpt lat="44.001932583889506" lon="2.89936583128816"><ele>637.0</ele><time>2026-04-02T12:28:49Z</time></trkpt><trkpt lat="44.00187689146743" lon="2.899722050142519"><ele>637.0</ele><time>2026-04-02T12:28:50Z</time></trkpt><trkpt lat="44.001812129298976" lon="2.900077636249554"><ele>637.0</ele><time>2026-04-02T12:28:51Z</time></trkpt><trkpt lat="44.001751482310034" lon="2.900432213758457"><ele>636.5</ele><time>2026-04-02T12:28:52Z</time></trkpt><trkpt lat="44.00168237479624" lon="2.90078305132135"><ele>636.0</ele><time>2026-04-02T12:28:53Z</time></trkpt><trkpt lat="44.00158583063873" lon="2.901127848154473"><ele>636.5</ele><time>2026-04-02T12:28:54Z</time></trkpt><trkpt lat="44.00146987559023" lon="2.901456651787577"><ele>637.0</ele><time>2026-04-02T12:28:55Z</time></trkpt><trkpt lat="44.00134182428706" lon="2.9017666657367394"><ele>637.0</ele><time>2026-04-02T12:28:56Z</time></trkpt><trkpt lat="44.00120891606905" lon="2.902047551112756"><ele>637.0</ele><time>2026-04-02T12:28:57Z</time></trkpt><trkpt lat="44.001076945495555" lon="2.902303874994234"><ele>637.0</ele><time>2026-04-02T12:28:58Z</time></trkpt><trkpt lat="44.000939926488186" lon="2.9025301618950134"><ele>637.0</ele><time>2026-04-02T12:28:59Z</time></trkpt><trkpt lat="44.00079663456393" lon="2.9027391522189725"><ele>637.0</ele><time>2026-04-02T12:29:00Z</time></trkpt><trkpt lat="44.000655134494345" lon="2.9029451152826207"><ele>635.6666666666667</ele><time>2026-04-02T12:29:01Z</time></trkpt><trkpt lat="44.00050669269541" lon="2.9031260988845653"><ele>634.3333333333334</ele><time>2026-04-02T12:29:02Z</time></trkpt><trkpt lat="44.000376787690364" lon="2.903320719881359"><ele>633.0</ele><time>2026-04-02T12:29:03Z</time></trkpt><trkpt lat="44.00023623884715" lon="2.9035430524293453"><ele>633.0</ele><time>2026-04-02T12:29:04Z</time></trkpt><trkpt lat="44.000099133344875" lon="2.903803528903532"><ele>633.0</ele><time>2026-04-02T12:29:05Z</time></trkpt><trkpt lat="43.99996196622465" lon="2.904075086446638"><ele>628.0</ele><time>2026-04-02T12:29:06Z</time></trkpt><trkpt lat="43.99982851684638" lon="2.90435646839357"><ele>623.0</ele><time>2026-04-02T12:29:07Z</time></trkpt><trkpt lat="43.99968001639924" lon="2.904623620333226"><ele>623.0</ele><time>2026-04-02T12:29:08Z</time></trkpt><trkpt lat="43.9995458946259" lon="2.9049013804957053"><ele>623.0</ele><time>2026-04-02T12:29:09Z</time></trkpt><trkpt lat="43.99941908766173" lon="2.905177077450194"><ele>624.6666666666666</ele><time>2026-04-02T12:29:10Z</time></trkpt><trkpt lat="43.9992956443903" lon="2.905424323006362"><ele>626.3333333333334</ele><time>2026-04-02T12:29:11Z</time></trkpt><trkpt lat="43.99919100553771" lon="2.90569498050525"><ele>628.0</ele><time>2026-04-02T12:29:12Z</time></trkpt><trkpt lat="43.99911215796078" lon="2.9060122409346114"><ele>628.0</ele><time>2026-04-02T12:29:13Z</time></trkpt><trkpt lat="43.99908687605437" lon="2.9063548380693778"><ele>628.0</ele><time>2026-04-02T12:29:14Z</time></trkpt><trkpt lat="43.99911331441955" lon="2.9066913173856777"><ele>629.0</ele><time>2026-04-02T12:29:15Z</time></trkpt><trkpt lat="43.99916028390486" lon="2.907021018369562"><ele>630.0</ele><time>2026-04-02T12:29:16Z</time></trkpt><trkpt lat="43.9992063391649" lon="2.9073523684191542"><ele>629.0</ele><time>2026-04-02T12:29:17Z</time></trkpt><trkpt lat="43.99931951940194" lon="2.9076858431302686"><ele>628.0</ele><time>2026-04-02T12:29:18Z</time></trkpt><trkpt lat="43.99946590606632" lon="2.9079898624534124"><ele>628.0</ele><time>2026-04-02T12:29:19Z</time></trkpt><trkpt lat="43.99961772871176" lon="2.908280250054739"><ele>628.0</ele><time>2026-04-02T12:29:20Z</time></trkpt><trkpt lat="43.99977971055128" lon="2.9085615406705063"><ele>627.5</ele><time>2026-04-02T12:29:21Z</time></trkpt><trkpt lat="43.99993883795239" lon="2.9088429562213394"><ele>627.0</ele><time>2026-04-02T12:29:22Z</time></trkpt><trkpt lat="44.0000724653837" lon="2.909141568698628"><ele>626.0</ele><time>2026-04-02T12:29:23Z</time></trkpt><trkpt lat="44.00015311133304" lon="2.9094900866342126"><ele>625.0</ele><time>2026-04-02T12:29:24Z</time></trkpt><trkpt lat="44.00022060539982" lon="2.9098447324825623"><ele>625.0</ele><time>2026-04-02T12:29:25Z</time></trkpt><trkpt lat="44.00025447812813" lon="2.9102291224174954"><ele>625.0</ele><time>2026-04-02T12:29:26Z</time></trkpt><trkpt lat="44.000257909763384" lon="2.910620830334319"><ele>624.0</ele><time>2026-04-02T12:29:27Z</time></trkpt><trkpt lat="44.00022539699696" lon="2.911017832345091"><ele>623.0</ele><time>2026-04-02T12:29:28Z</time></trkpt><trkpt lat="44.00016434680035" lon="2.9113854834621042"><ele>621.5</ele><time>2026-04-02T12:29:29Z</time></trkpt><trkpt lat="44.00010164552235" lon="2.9117541235550943"><ele>620.0</ele><time>2026-04-02T12:29:30Z</time></trkpt><trkpt lat="43.99998953696427" lon="2.9121055117535146"><ele>620.0</ele><time>2026-04-02T12:29:31Z</time></trkpt><trkpt lat="43.99985951242358" lon="2.9124560465082974"><ele>620.0</ele><time>2026-04-02T12:29:32Z</time></trkpt><trkpt lat="43.99971210985449" lon="2.9128035744180703"><ele>618.5</ele><time>2026-04-02T12:29:33Z</time></trkpt><trkpt lat="43.999564163759885" lon="2.91315567488495"><ele>617.0</ele><time>2026-04-02T12:29:34Z</time></trkpt><trkpt lat="43.999424464928886" lon="2.913506836263832"><ele>617.0</ele><time>2026-04-02T12:29:35Z</time></trkpt><trkpt lat="43.99929353360049" lon="2.913853555749176"><ele>617.0</ele><time>2026-04-02T12:29:36Z</time></trkpt><trkpt lat="43.99917003025839" lon="2.914194249605841"><ele>617.0</ele><time>2026-04-02T12:29:37Z</time></trkpt><trkpt lat="43.99907419984779" lon="2.9145385007981575"><ele>617.0</ele><time>2026-04-02T12:29:38Z</time></trkpt><trkpt lat="43.99903046264968" lon="2.914903647740541"><ele>617.5</ele><time>2026-04-02T12:29:39Z</time></trkpt><trkpt lat="43.99901333299662" lon="2.9152852149993063"><ele>618.0</ele><time>2026-04-02T12:29:40Z</time></trkpt><trkpt lat="43.99900367823261" lon="2.9156650162165048"><ele>618.5</ele><time>2026-04-02T12:29:41Z</time></trkpt><trkpt lat="43.99898746072623" lon="2.916042058275743"><ele>619.0</ele><time>2026-04-02T12:29:42Z</time></trkpt><trkpt lat="43.99896758596147" lon="2.916418038386122"><ele>617.0</ele><time>2026-04-02T12:29:43Z</time></trkpt><trkpt lat="43.99894516666793" lon="2.9167999859175464"><ele>615.0</ele><time>2026-04-02T12:29:44Z</time></trkpt><trkpt lat="43.998921062507016" lon="2.9171745678095307"><ele>615.0</ele><time>2026-04-02T12:29:45Z</time></trkpt><trkpt lat="43.99889817637846" lon="2.917552215945926"><ele>615.0</ele><time>2026-04-02T12:29:46Z</time></trkpt><trkpt lat="43.99887419203962" lon="2.917924707726364"><ele>614.0</ele><time>2026-04-02T12:29:47Z</time></trkpt><trkpt lat="43.99884512318699" lon="2.9182972172509603"><ele>613.0</ele><time>2026-04-02T12:29:48Z</time></trkpt><trkpt lat="43.99882399239178" lon="2.918666865614736"><ele>613.0</ele><time>2026-04-02T12:29:49Z</time></trkpt><trkpt lat="43.998803670127586" lon="2.919038354892276"><ele>613.0</ele><time>2026-04-02T12:29:50Z</time></trkpt><trkpt lat="43.99878108769294" lon="2.919410174390641"><ele>614.0</ele><time>2026-04-02T12:29:51Z</time></trkpt><trkpt lat="43.998760246549026" lon="2.919784288074629"><ele>615.0</ele><time>2026-04-02T12:29:52Z</time></trkpt><trkpt lat="43.998735540404006" lon="2.9201545519244467"><ele>615.0</ele><time>2026-04-02T12:29:53Z</time></trkpt><trkpt lat="43.998710417810656" lon="2.92052688783151"><ele>615.0</ele><time>2026-04-02T12:29:54Z</time></trkpt><trkpt lat="43.998688136551465" lon="2.920894918435905"><ele>615.5</ele><time>2026-04-02T12:29:55Z</time></trkpt><trkpt lat="43.998666811702385" lon="2.9212671593242607"><ele>616.0</ele><time>2026-04-02T12:29:56Z</time></trkpt><trkpt lat="43.9986419147852" lon="2.921630742408143"><ele>614.0</ele><time>2026-04-02T12:29:57Z</time></trkpt><trkpt lat="43.99861966341177" lon="2.9219996487263895"><ele>612.0</ele><time>2026-04-02T12:29:58Z</time></trkpt><trkpt lat="43.99859915584652" lon="2.922364317010216"><ele>611.5</ele><time>2026-04-02T12:29:59Z</time></trkpt><trkpt lat="43.99856928836536" lon="2.9227221075628567"><ele>611.0</ele><time>2026-04-02T12:30:00Z</time></trkpt><trkpt lat="43.99851682824084" lon="2.9230816050108404"><ele>610.5</ele><time>2026-04-02T12:30:01Z</time></trkpt><trkpt lat="43.99844407314815" lon="2.923437600975465"><ele>610.0</ele><time>2026-04-02T12:30:02Z</time></trkpt><trkpt lat="43.99836160954453" lon="2.923800783877489"><ele>615.5</ele><time>2026-04-02T12:30:03Z</time></trkpt><trkpt lat="43.998265239477334" lon="2.924155272243327"><ele>621.0</ele><time>2026-04-02T12:30:04Z</time></trkpt><trkpt lat="43.99815620021978" lon="2.9244749279409885"><ele>622.0</ele><time>2026-04-02T12:30:05Z</time></trkpt><trkpt lat="43.99803962254164" lon="2.9247805203275217"><ele>623.0</ele><time>2026-04-02T12:30:06Z</time></trkpt><trkpt lat="43.99791979822827" lon="2.9250822662867177"><ele>623.0</ele><time>2026-04-02T12:30:07Z</time></trkpt><trkpt lat="43.99780635678453" lon="2.9253801529591574"><ele>623.0</ele><time>2026-04-02T12:30:08Z</time></trkpt><trkpt lat="43.99769888349881" lon="2.925673265533356"><ele>624.5</ele><time>2026-04-02T12:30:09Z</time></trkpt><trkpt lat="43.99758574469733" lon="2.9259691943364774"><ele>626.0</ele><time>2026-04-02T12:30:10Z</time></trkpt><trkpt lat="43.99747005540096" lon="2.9262659744701733"><ele>626.0</ele><time>2026-04-02T12:30:11Z</time></trkpt><trkpt lat="43.997359971742064" lon="2.926566755657242"><ele>626.0</ele><time>2026-04-02T12:30:12Z</time></trkpt><trkpt lat="43.997251407306806" lon="2.926867682916057"><ele>624.0</ele><time>2026-04-02T12:30:13Z</time></trkpt><trkpt lat="43.99714100380756" lon="2.9271662421114857"><ele>622.0</ele><time>2026-04-02T12:30:14Z</time></trkpt><trkpt lat="43.9970304831663" lon="2.9274675238304204"><ele>621.5</ele><time>2026-04-02T12:30:15Z</time></trkpt><trkpt lat="43.99691807783411" lon="2.9277673708787693"><ele>621.0</ele><time>2026-04-02T12:30:16Z</time></trkpt><trkpt lat="43.99680935322774" lon="2.9280544240286677"><ele>621.0</ele><time>2026-04-02T12:30:17Z</time></trkpt><trkpt lat="43.9966997815779" lon="2.9283427957256776"><ele>621.0</ele><time>2026-04-02T12:30:18Z</time></trkpt><trkpt lat="43.99658130477527" lon="2.928640737512074"><ele>624.0</ele><time>2026-04-02T12:30:19Z</time></trkpt><trkpt lat="43.99646943778398" lon="2.928926899441964"><ele>627.0</ele><time>2026-04-02T12:30:20Z</time></trkpt><trkpt lat="43.99636648247445" lon="2.9291974013936364"><ele>623.3333333333334</ele><time>2026-04-02T12:30:21Z</time></trkpt><trkpt lat="43.99626457480406" lon="2.929461415070602"><ele>619.6666666666667</ele><time>2026-04-02T12:30:22Z</time></trkpt><trkpt lat="43.99616552197848" lon="2.929713887926911"><ele>616.0</ele><time>2026-04-02T12:30:23Z</time></trkpt><trkpt lat="43.99606746409513" lon="2.9299593655793617"><ele>617.0</ele><time>2026-04-02T12:30:24Z</time></trkpt><trkpt lat="43.99596942516072" lon="2.9301689232155304"><ele>618.0</ele><time>2026-04-02T12:30:25Z</time></trkpt><trkpt lat="43.995851002748175" lon="2.9303313987670077"><ele>619.0</ele><time>2026-04-02T12:30:26Z</time></trkpt><trkpt lat="43.995700888610315" lon="2.930433190785455"><ele>619.0</ele><time>2026-04-02T12:30:27Z</time></trkpt><trkpt lat="43.9955164922857" lon="2.9304567639734933"><ele>619.0</ele><time>2026-04-02T12:30:28Z</time></trkpt><trkpt lat="43.99532090534007" lon="2.9304530200761296"><ele>619.0</ele><time>2026-04-02T12:30:29Z</time></trkpt><trkpt lat="43.9951024045278" lon="2.930431244176275"><ele>620.6666666666667</ele><time>2026-04-02T12:30:30Z</time></trkpt><trkpt lat="43.99487378600705" lon="2.9304260366407564"><ele>622.3333333333334</ele><time>2026-04-02T12:30:31Z</time></trkpt><trkpt lat="43.994668324635725" lon="2.9304405792841637"><ele>624.0</ele><time>2026-04-02T12:30:32Z</time></trkpt><trkpt lat="43.99448516143488" lon="2.930449759656241"><ele>624.0</ele><time>2026-04-02T12:30:33Z</time></trkpt><trkpt lat="43.99433103877247" lon="2.9304572365394983"><ele>624.0</ele><time>2026-04-02T12:30:34Z</time></trkpt><trkpt lat="43.99420200095608" lon="2.9304855895100634"><ele>624.0</ele><time>2026-04-02T12:30:35Z</time></trkpt><trkpt lat="43.994105862080914" lon="2.9305549358763434"><ele>624.0</ele><time>2026-04-02T12:30:36Z</time></trkpt><trkpt lat="43.994069259063416" lon="2.930650898471157"><ele>624.0</ele><time>2026-04-02T12:30:37Z</time></trkpt><trkpt lat="43.99398510982468" lon="2.9306389266972848"><ele>624.0</ele><time>2026-04-02T12:30:38Z</time></trkpt><trkpt lat="43.99414857443342" lon="2.9307713343952955"><ele>624.0</ele><time>2026-04-02T12:30:40Z</time></trkpt><trkpt lat="43.99421469310751" lon="2.9306444541233057"><ele>624.0</ele><time>2026-04-02T12:30:42Z</time></trkpt><trkpt lat="43.99423337607909" lon="2.9305594042618264"><ele>624.0</ele><time>2026-04-02T12:30:43Z</time></trkpt><trkpt lat="43.994285116301484" lon="2.93050906294768"><ele>624.0</ele><time>2026-04-02T12:30:44Z</time></trkpt><trkpt lat="43.99437278708484" lon="2.9304895015491557"><ele>624.0</ele><time>2026-04-02T12:30:45Z</time></trkpt><trkpt lat="43.99448531108664" lon="2.930483991089009"><ele>624.0</ele><time>2026-04-02T12:30:46Z</time></trkpt><trkpt lat="43.994631738081125" lon="2.9304910473598405"><ele>624.0</ele><time>2026-04-02T12:30:47Z</time></trkpt><trkpt lat="43.99481265148534" lon="2.9304923507965515"><ele>624.0</ele><time>2026-04-02T12:30:48Z</time></trkpt><trkpt lat="43.995002299574125" lon="2.9304836106751564"><ele>624.0</ele><time>2026-04-02T12:30:49Z</time></trkpt><trkpt lat="43.99521560297785" lon="2.9304724512077054"><ele>624.0</ele><time>2026-04-02T12:30:50Z</time></trkpt><trkpt lat="43.995424668402954" lon="2.9304621318074213"><ele>622.3333333333334</ele><time>2026-04-02T12:30:51Z</time></trkpt><trkpt lat="43.99561129611043" lon="2.9304495434429865"><ele>620.6666666666667</ele><time>2026-04-02T12:30:52Z</time></trkpt><trkpt lat="43.9957799530154" lon="2.9304166025464813"><ele>619.0</ele><time>2026-04-02T12:30:53Z</time></trkpt><trkpt lat="43.995934226236294" lon="2.9303195170443495"><ele>618.0</ele><time>2026-04-02T12:30:54Z</time></trkpt><trkpt lat="43.99606440964795" lon="2.930140570615999"><ele>617.0</ele><time>2026-04-02T12:30:55Z</time></trkpt><trkpt lat="43.99616639527632" lon="2.9298981662319594"><ele>616.0</ele><time>2026-04-02T12:30:56Z</time></trkpt><trkpt lat="43.996250674634325" lon="2.929608756654523"><ele>616.0</ele><time>2026-04-02T12:30:57Z</time></trkpt><trkpt lat="43.99636068787927" lon="2.9293204088099625"><ele>616.0</ele><time>2026-04-02T12:30:58Z</time></trkpt><trkpt lat="43.99648299336336" lon="2.9290136465143783"><ele>616.5</ele><time>2026-04-02T12:30:59Z</time></trkpt><trkpt lat="43.99660265610496" lon="2.9287056305966725"><ele>617.0</ele><time>2026-04-02T12:31:00Z</time></trkpt><trkpt lat="43.996722517298174" lon="2.9283946441304973"><ele>619.0</ele><time>2026-04-02T12:31:01Z</time></trkpt><trkpt lat="43.996840229594206" lon="2.9280847183301204"><ele>621.0</ele><time>2026-04-02T12:31:02Z</time></trkpt><trkpt lat="43.99695358360032" lon="2.927776303537255"><ele>621.5</ele><time>2026-04-02T12:31:03Z</time></trkpt><trkpt lat="43.99706586958898" lon="2.927470968179037"><ele>622.0</ele><time>2026-04-02T12:31:04Z</time></trkpt><trkpt lat="43.997178279670806" lon="2.9271545805279833"><ele>622.0</ele><time>2026-04-02T12:31:05Z</time></trkpt><trkpt lat="43.997292656907334" lon="2.9268430457363124"><ele>622.0</ele><time>2026-04-02T12:31:06Z</time></trkpt><trkpt lat="43.99740937418701" lon="2.9265384290425387"><ele>620.0</ele><time>2026-04-02T12:31:07Z</time></trkpt><trkpt lat="43.99752109081409" lon="2.92624127676515"><ele>618.0</ele><time>2026-04-02T12:31:08Z</time></trkpt><trkpt lat="43.99762705804893" lon="2.925958224041534"><ele>619.6666666666666</ele><time>2026-04-02T12:31:09Z</time></trkpt><trkpt lat="43.997728620221146" lon="2.9256860771695203"><ele>621.3333333333333</ele><time>2026-04-02T12:31:10Z</time></trkpt><trkpt lat="43.99782692366423" lon="2.9254167473945114"><ele>623.0</ele><time>2026-04-02T12:31:11Z</time></trkpt><trkpt lat="43.99792804007013" lon="2.925137755954468"><ele>623.0</ele><time>2026-04-02T12:31:12Z</time></trkpt><trkpt lat="43.998033111698234" lon="2.924843569202895"><ele>623.0</ele><time>2026-04-02T12:31:13Z</time></trkpt><trkpt lat="43.99814377251117" lon="2.924534089295756"><ele>622.0</ele><time>2026-04-02T12:31:14Z</time></trkpt><trkpt lat="43.998272915174645" lon="2.9242238475922724"><ele>621.0</ele><time>2026-04-02T12:31:15Z</time></trkpt><trkpt lat="43.998357487631665" lon="2.923889925055416"><ele>616.0</ele><time>2026-04-02T12:31:16Z</time></trkpt><trkpt lat="43.99845099216597" lon="2.9235505961805623"><ele>611.0</ele><time>2026-04-02T12:31:17Z</time></trkpt><trkpt lat="43.99852590813786" lon="2.9231916827197133"><ele>611.0</ele><time>2026-04-02T12:31:18Z</time></trkpt><trkpt lat="43.99858510467247" lon="2.922812976341032"><ele>611.0</ele><time>2026-04-02T12:31:19Z</time></trkpt><trkpt lat="43.998624166391785" lon="2.922439002595255"><ele>611.5</ele><time>2026-04-02T12:31:20Z</time></trkpt><trkpt lat="43.998647437584246" lon="2.922064261492852"><ele>612.0</ele><time>2026-04-02T12:31:21Z</time></trkpt><trkpt lat="43.998686756449196" lon="2.921679590628713"><ele>613.5</ele><time>2026-04-02T12:31:22Z</time></trkpt><trkpt lat="43.99871049907001" lon="2.9212804583039187"><ele>615.0</ele><time>2026-04-02T12:31:23Z</time></trkpt><trkpt lat="43.99873429192958" lon="2.920880030036072"><ele>615.0</ele><time>2026-04-02T12:31:24Z</time></trkpt><trkpt lat="43.99874188702364" lon="2.9204758540188274"><ele>615.0</ele><time>2026-04-02T12:31:25Z</time></trkpt><trkpt lat="43.998769336052945" lon="2.920076332656304"><ele>615.0</ele><time>2026-04-02T12:31:26Z</time></trkpt><trkpt lat="43.99879671150377" lon="2.9196776146654426"><ele>615.0</ele><time>2026-04-02T12:31:27Z</time></trkpt><trkpt lat="43.998817144983654" lon="2.9192816799637007"><ele>614.0</ele><time>2026-04-02T12:31:28Z</time></trkpt><trkpt lat="43.99883726549104" lon="2.918886896845966"><ele>613.0</ele><time>2026-04-02T12:31:29Z</time></trkpt><trkpt lat="43.99885935146676" lon="2.9185055736059544"><ele>612.0</ele><time>2026-04-02T12:31:30Z</time></trkpt><trkpt lat="43.998881398128" lon="2.918152621816167"><ele>611.0</ele><time>2026-04-02T12:31:31Z</time></trkpt><trkpt lat="43.998901266455015" lon="2.917831786125432"><ele>612.3333333333333</ele><time>2026-04-02T12:31:32Z</time></trkpt><trkpt lat="43.99891835585391" lon="2.91753240121702"><ele>613.6666666666666</ele><time>2026-04-02T12:31:33Z</time></trkpt><trkpt lat="43.9989473497929" lon="2.9172640745167517"><ele>615.0</ele><time>2026-04-02T12:31:34Z</time></trkpt><trkpt lat="43.99896189678961" lon="2.917018956736901"><ele>615.0</ele><time>2026-04-02T12:31:35Z</time></trkpt><trkpt lat="43.99896409778511" lon="2.9167910023524097"><ele>615.0</ele><time>2026-04-02T12:31:36Z</time></trkpt><trkpt lat="43.99898335505689" lon="2.916587079102093"><ele>615.0</ele><time>2026-04-02T12:31:37Z</time></trkpt><trkpt lat="43.998982935594036" lon="2.9164121552031292"><ele>615.0</ele><time>2026-04-02T12:31:38Z</time></trkpt><trkpt lat="43.99900683455313" lon="2.916275327196707"><ele>614.5</ele><time>2026-04-02T12:31:39Z</time></trkpt><trkpt lat="43.99900147597445" lon="2.9161719332575493"><ele>614.0</ele><time>2026-04-02T12:31:40Z</time></trkpt><trkpt lat="43.99906186495149" lon="2.9161171237387764"><ele>613.5</ele><time>2026-04-02T12:31:42Z</time></trkpt><trkpt lat="43.999147683281315" lon="2.9161502237336876"><ele>613.0</ele><time>2026-04-02T12:31:43Z</time></trkpt><trkpt lat="43.99922708551801" lon="2.9161838378602702"><ele>612.5</ele><time>2026-04-02T12:31:44Z</time></trkpt><trkpt lat="43.999335572027746" lon="2.916238815394525"><ele>612.0</ele><time>2026-04-02T12:31:45Z</time></trkpt><trkpt lat="43.999465472140066" lon="2.916314045335515"><ele>612.0</ele><time>2026-04-02T12:31:46Z</time></trkpt><trkpt lat="43.9996145436904" lon="2.916368075627615"><ele>612.0</ele><time>2026-04-02T12:31:47Z</time></trkpt><trkpt lat="43.999759994272054" lon="2.916429542624492"><ele>612.0</ele><time>2026-04-02T12:31:48Z</time></trkpt><trkpt lat="43.99992492060609" lon="2.9164783023031116"><ele>612.0</ele><time>2026-04-02T12:31:49Z</time></trkpt><trkpt lat="44.000112039416976" lon="2.9165089910879605"><ele>612.0</ele><time>2026-04-02T12:31:50Z</time></trkpt><trkpt lat="44.00029451482843" lon="2.9165335035017685"><ele>612.0</ele><time>2026-04-02T12:31:51Z</time></trkpt><trkpt lat="44.00047675696981" lon="2.9165646711103"><ele>612.0</ele><time>2026-04-02T12:31:52Z</time></trkpt><trkpt lat="44.00066850253072" lon="2.9165646062830084"><ele>612.0</ele><time>2026-04-02T12:31:53Z</time></trkpt><trkpt lat="44.00085557112579" lon="2.916568648946682"><ele>612.0</ele><time>2026-04-02T12:31:54Z</time></trkpt><trkpt lat="44.00103083966308" lon="2.916597567077818"><ele>612.0</ele><time>2026-04-02T12:31:55Z</time></trkpt><trkpt lat="44.001194881976275" lon="2.9166537798275938"><ele>612.0</ele><time>2026-04-02T12:31:56Z</time></trkpt><trkpt lat="44.00135166069925" lon="2.916724186138153"><ele>612.0</ele><time>2026-04-02T12:31:57Z</time></trkpt><trkpt lat="44.00151476145235" lon="2.916774583455983"><ele>611.3333333333334</ele><time>2026-04-02T12:31:58Z</time></trkpt><trkpt lat="44.00168795601652" lon="2.9167982625588653"><ele>610.6666666666667</ele><time>2026-04-02T12:31:59Z</time></trkpt><trkpt lat="44.00186474361505" lon="2.916766587368054"><ele>610.0</ele><time>2026-04-02T12:32:00Z</time></trkpt><trkpt lat="44.00203182905406" lon="2.9166732110083107"><ele>610.0</ele><time>2026-04-02T12:32:01Z</time></trkpt><trkpt lat="44.0021902243674" lon="2.9165510634601874"><ele>610.0</ele><time>2026-04-02T12:32:02Z</time></trkpt><trkpt lat="44.00235067167656" lon="2.916427005363116"><ele>610.0</ele><time>2026-04-02T12:32:03Z</time></trkpt><trkpt lat="44.002530402711464" lon="2.9163351766095684"><ele>610.0</ele><time>2026-04-02T12:32:04Z</time></trkpt><trkpt lat="44.00271536026319" lon="2.916265647286799"><ele>610.0</ele><time>2026-04-02T12:32:05Z</time></trkpt><trkpt lat="44.00291175268364" lon="2.916212579150189"><ele>610.0</ele><time>2026-04-02T12:32:06Z</time></trkpt><trkpt lat="44.00311645176159" lon="2.916164468597254"><ele>610.0</ele><time>2026-04-02T12:32:07Z</time></trkpt><trkpt lat="44.00332374461252" lon="2.916134341004733"><ele>610.0</ele><time>2026-04-02T12:32:08Z</time></trkpt><trkpt lat="44.00352678257641" lon="2.91614125925521"><ele>610.0</ele><time>2026-04-02T12:32:09Z</time></trkpt><trkpt lat="44.003655780825014" lon="2.9161207326165886"><ele>610.4</ele><time>2026-04-02T12:32:10Z</time></trkpt><trkpt lat="44.00378383161988" lon="2.916158413665717"><ele>610.8</ele><time>2026-04-02T12:32:11Z</time></trkpt><trkpt lat="44.003870604887155" lon="2.916169802104399"><ele>611.2</ele><time>2026-04-02T12:32:12Z</time></trkpt><trkpt lat="44.00393493805893" lon="2.9162792269552136"><ele>611.6</ele><time>2026-04-02T12:32:13Z</time></trkpt><trkpt lat="44.0039764196666" lon="2.916419947793038"><ele>612.0</ele><time>2026-04-02T12:32:14Z</time></trkpt><trkpt lat="44.00404760118409" lon="2.916597648220953"><ele>612.0</ele><time>2026-04-02T12:32:15Z</time></trkpt><trkpt lat="44.00413577430083" lon="2.9167725774383864"><ele>612.0</ele><time>2026-04-02T12:32:16Z</time></trkpt><trkpt lat="44.00422959942192" lon="2.916915329775127"><ele>612.0</ele><time>2026-04-02T12:32:17Z</time></trkpt><trkpt lat="44.004352039534695" lon="2.9170385999773067"><ele>612.0</ele><time>2026-04-02T12:32:18Z</time></trkpt><trkpt lat="44.00447537291555" lon="2.917144324300052"><ele>612.0</ele><time>2026-04-02T12:32:19Z</time></trkpt><trkpt lat="44.00458714528359" lon="2.9172196385540405"><ele>612.0</ele><time>2026-04-02T12:32:20Z</time></trkpt><trkpt lat="44.00470855706699" lon="2.9172480386898223"><ele>612.0</ele><time>2026-04-02T12:32:21Z</time></trkpt><trkpt lat="44.00484784976627" lon="2.9172348250610067"><ele>612.0</ele><time>2026-04-02T12:32:22Z</time></trkpt><trkpt lat="44.005003808374916" lon="2.9171798081792093"><ele>608.6666666666666</ele><time>2026-04-02T12:32:23Z</time></trkpt><trkpt lat="44.005149041049236" lon="2.917074859784469"><ele>605.3333333333333</ele><time>2026-04-02T12:32:24Z</time></trkpt><trkpt lat="44.0052902185482" lon="2.9169537905913496"><ele>602.0</ele><time>2026-04-02T12:32:25Z</time></trkpt><trkpt lat="44.00543206927676" lon="2.9168620837518673"><ele>602.0</ele><time>2026-04-02T12:32:26Z</time></trkpt><trkpt lat="44.00558355327703" lon="2.916783730018407"><ele>602.0</ele><time>2026-04-02T12:32:27Z</time></trkpt><trkpt lat="44.00572582349144" lon="2.916709872102066"><ele>602.0</ele><time>2026-04-02T12:32:28Z</time></trkpt><trkpt lat="44.00585471484044" lon="2.916647964109934"><ele>601.0</ele><time>2026-04-02T12:32:29Z</time></trkpt><trkpt lat="44.005983167232685" lon="2.9166295362942916"><ele>600.0</ele><time>2026-04-02T12:32:30Z</time></trkpt><trkpt lat="44.00609936346814" lon="2.916680259362092"><ele>599.0</ele><time>2026-04-02T12:32:31Z</time></trkpt><trkpt lat="44.006220431605456" lon="2.9167651978178193"><ele>598.0</ele><time>2026-04-02T12:32:32Z</time></trkpt><trkpt lat="44.00635715224869" lon="2.916878043424502"><ele>596.5</ele><time>2026-04-02T12:32:33Z</time></trkpt><trkpt lat="44.00649887131331" lon="2.9169683587720714"><ele>595.0</ele><time>2026-04-02T12:32:34Z</time></trkpt><trkpt lat="44.006618357722076" lon="2.9170739384490667"><ele>593.5</ele><time>2026-04-02T12:32:35Z</time></trkpt><trkpt lat="44.006735320542674" lon="2.9171561410667586"><ele>592.0</ele><time>2026-04-02T12:32:36Z</time></trkpt><trkpt lat="44.006849352109725" lon="2.917243057685157"><ele>591.75</ele><time>2026-04-02T12:32:37Z</time></trkpt><trkpt lat="44.006965447331545" lon="2.9173365078910747"><ele>591.5</ele><time>2026-04-02T12:32:38Z</time></trkpt><trkpt lat="44.00707632499899" lon="2.917426983391075"><ele>591.25</ele><time>2026-04-02T12:32:39Z</time></trkpt><trkpt lat="44.00718580026925" lon="2.9175092999119907"><ele>591.0</ele><time>2026-04-02T12:32:40Z</time></trkpt><trkpt lat="44.00731320589435" lon="2.9175624378250435"><ele>590.0</ele><time>2026-04-02T12:32:41Z</time></trkpt><trkpt lat="44.00746708523387" lon="2.91756903534412"><ele>589.0</ele><time>2026-04-02T12:32:42Z</time></trkpt><trkpt lat="44.007625922378395" lon="2.917549982308755"><ele>588.0</ele><time>2026-04-02T12:32:43Z</time></trkpt><trkpt lat="44.00777743309651" lon="2.9175264329817923"><ele>588.0</ele><time>2026-04-02T12:32:44Z</time></trkpt><trkpt lat="44.00791666081006" lon="2.9174654381154923"><ele>588.0</ele><time>2026-04-02T12:32:45Z</time></trkpt><trkpt lat="44.00804142909617" lon="2.9173488822968223"><ele>588.0</ele><time>2026-04-02T12:32:46Z</time></trkpt><trkpt lat="44.008164534568884" lon="2.917199175434355"><ele>588.0</ele><time>2026-04-02T12:32:47Z</time></trkpt><trkpt lat="44.00827928390743" lon="2.9170604143835863"><ele>588.0</ele><time>2026-04-02T12:32:48Z</time></trkpt><trkpt lat="44.00839252215191" lon="2.916929251721701"><ele>588.0</ele><time>2026-04-02T12:32:49Z</time></trkpt><trkpt lat="44.00848747902129" lon="2.9168112724875166"><ele>588.0</ele><time>2026-04-02T12:32:50Z</time></trkpt><trkpt lat="44.00856699799817" lon="2.9167326395579236"><ele>587.5</ele><time>2026-04-02T12:32:51Z</time></trkpt><trkpt lat="44.0086602786475" lon="2.91671987401372"><ele>587.0</ele><time>2026-04-02T12:32:52Z</time></trkpt><trkpt lat="44.00875075307324" lon="2.9167236676225192"><ele>586.5</ele><time>2026-04-02T12:32:53Z</time></trkpt><trkpt lat="44.008835814329935" lon="2.9167178559511484"><ele>586.0</ele><time>2026-04-02T12:32:54Z</time></trkpt><trkpt lat="44.00890989336885" lon="2.916684205009678"><ele>585.5</ele><time>2026-04-02T12:32:55Z</time></trkpt><trkpt lat="44.00899318571548" lon="2.916623617165178"><ele>585.0</ele><time>2026-04-02T12:32:56Z</time></trkpt><trkpt lat="44.0090611849918" lon="2.916561951178002"><ele>585.0</ele><time>2026-04-02T12:32:57Z</time></trkpt><trkpt lat="44.009137364147854" lon="2.916488279898296"><ele>585.0</ele><time>2026-04-02T12:32:58Z</time></trkpt><trkpt lat="44.0092104007351" lon="2.916405309120206"><ele>585.0</ele><time>2026-04-02T12:32:59Z</time></trkpt><trkpt lat="44.00928007387967" lon="2.9163284724213803"><ele>585.0</ele><time>2026-04-02T12:33:00Z</time></trkpt><trkpt lat="44.009345548118716" lon="2.916277133304964"><ele>585.0</ele><time>2026-04-02T12:33:01Z</time></trkpt><trkpt lat="44.0094123326569" lon="2.916259072291251"><ele>585.0</ele><time>2026-04-02T12:33:02Z</time></trkpt><trkpt lat="44.00948260541912" lon="2.9162727431515196"><ele>585.0</ele><time>2026-04-02T12:33:03Z</time></trkpt><trkpt lat="44.00956097458697" lon="2.916323266605206"><ele>585.0</ele><time>2026-04-02T12:33:04Z</time></trkpt><trkpt lat="44.00964574060359" lon="2.916420783979915"><ele>585.0</ele><time>2026-04-02T12:33:05Z</time></trkpt><trkpt lat="44.00973160512697" lon="2.9165401598942413"><ele>585.0</ele><time>2026-04-02T12:33:06Z</time></trkpt><trkpt lat="44.009837100145695" lon="2.9166571578613394"><ele>585.3333333333334</ele><time>2026-04-02T12:33:07Z</time></trkpt><trkpt lat="44.00995081446256" lon="2.916784771129789"><ele>585.6666666666667</ele><time>2026-04-02T12:33:08Z</time></trkpt><trkpt lat="44.01007169660674" lon="2.9169349606089723"><ele>586.0</ele><time>2026-04-02T12:33:09Z</time></trkpt><trkpt lat="44.010198219466446" lon="2.9170933088749154"><ele>586.0</ele><time>2026-04-02T12:33:10Z</time></trkpt><trkpt lat="44.010330511332995" lon="2.9172430979501005"><ele>586.0</ele><time>2026-04-02T12:33:11Z</time></trkpt><trkpt lat="44.0104729204824" lon="2.917382934568216"><ele>586.0</ele><time>2026-04-02T12:33:12Z</time></trkpt><trkpt lat="44.01062073227125" lon="2.917525022528281"><ele>586.3333333333334</ele><time>2026-04-02T12:33:13Z</time></trkpt><trkpt lat="44.01075026310194" lon="2.917671884128456"><ele>586.6666666666666</ele><time>2026-04-02T12:33:14Z</time></trkpt><trkpt lat="44.010874366579024" lon="2.917821975859753"><ele>587.0</ele><time>2026-04-02T12:33:15Z</time></trkpt><trkpt lat="44.01100002856359" lon="2.917965164330201"><ele>587.5</ele><time>2026-04-02T12:33:16Z</time></trkpt><trkpt lat="44.011120533719804" lon="2.9180989744593693"><ele>588.0</ele><time>2026-04-02T12:33:17Z</time></trkpt><trkpt lat="44.0112340471069" lon="2.9182281524442693"><ele>588.5</ele><time>2026-04-02T12:33:18Z</time></trkpt><trkpt lat="44.01134212837939" lon="2.9183552558536086"><ele>589.0</ele><time>2026-04-02T12:33:19Z</time></trkpt><trkpt lat="44.01144415676478" lon="2.918466541382385"><ele>589.1666666666667</ele><time>2026-04-02T12:33:20Z</time></trkpt><trkpt lat="44.01152785004563" lon="2.918556744156192"><ele>589.3333333333334</ele><time>2026-04-02T12:33:21Z</time></trkpt><trkpt lat="44.01159558165034" lon="2.9185932847180585"><ele>589.5</ele><time>2026-04-02T12:33:22Z</time></trkpt><trkpt lat="44.01166871176538" lon="2.918589453715609"><ele>589.6666666666666</ele><time>2026-04-02T12:33:23Z</time></trkpt><trkpt lat="44.011739311531855" lon="2.9185402989588045"><ele>589.8333333333333</ele><time>2026-04-02T12:33:24Z</time></trkpt><trkpt lat="44.01184171658643" lon="2.91853106920588"><ele>590.0</ele><time>2026-04-02T12:33:26Z</time></trkpt><trkpt lat="44.01189534726633" lon="2.9185930656498433"><ele>590.75</ele><time>2026-04-02T12:33:27Z</time></trkpt><trkpt lat="44.011965871801976" lon="2.918682372519915"><ele>591.5</ele><time>2026-04-02T12:33:28Z</time></trkpt><trkpt lat="44.012066055310314" lon="2.918792589511325"><ele>592.25</ele><time>2026-04-02T12:33:29Z</time></trkpt><trkpt lat="44.01218679900156" lon="2.9188862168166176"><ele>593.0</ele><time>2026-04-02T12:33:30Z</time></trkpt><trkpt lat="44.01232219297367" lon="2.918983797711515"><ele>593.0</ele><time>2026-04-02T12:33:31Z</time></trkpt><trkpt lat="44.012479141707615" lon="2.9190940154489335"><ele>593.0</ele><time>2026-04-02T12:33:32Z</time></trkpt><trkpt lat="44.01264868269321" lon="2.91921343812761"><ele>593.0</ele><time>2026-04-02T12:33:33Z</time></trkpt><trkpt lat="44.01282053380423" lon="2.9193374243343646"><ele>589.0</ele><time>2026-04-02T12:33:34Z</time></trkpt><trkpt lat="44.01299634133886" lon="2.9194513579362216"><ele>585.0</ele><time>2026-04-02T12:33:35Z</time></trkpt><trkpt lat="44.01316555940396" lon="2.919560886625289"><ele>581.0</ele><time>2026-04-02T12:33:36Z</time></trkpt><trkpt lat="44.013332187635925" lon="2.919657331367892"><ele>579.0</ele><time>2026-04-02T12:33:37Z</time></trkpt><trkpt lat="44.01347829126452" lon="2.919723024689079"><ele>577.0</ele><time>2026-04-02T12:33:38Z</time></trkpt><trkpt lat="44.01360143964598" lon="2.9197827346094454"><ele>575.0</ele><time>2026-04-02T12:33:39Z</time></trkpt><trkpt lat="44.013682153462085" lon="2.919830434263043"><ele>573.0</ele><time>2026-04-02T12:33:40Z</time></trkpt><trkpt lat="44.01374345546785" lon="2.919989125796985"><ele>572.4</ele><time>2026-04-02T12:33:42Z</time></trkpt><trkpt lat="44.01370649207934" lon="2.9201113590474255"><ele>571.8</ele><time>2026-04-02T12:33:43Z</time></trkpt><trkpt lat="44.01370988457211" lon="2.920236118343971"><ele>571.2</ele><time>2026-04-02T12:33:44Z</time></trkpt><trkpt lat="44.01370159827041" lon="2.920384551903447"><ele>570.6</ele><time>2026-04-02T12:33:45Z</time></trkpt><trkpt lat="44.01369695898025" lon="2.9205546465860555"><ele>570.0</ele><time>2026-04-02T12:33:46Z</time></trkpt><trkpt lat="44.013707966249065" lon="2.9207268361018346"><ele>570.0</ele><time>2026-04-02T12:33:47Z</time></trkpt><trkpt lat="44.013716773846205" lon="2.920925280738178"><ele>570.0</ele><time>2026-04-02T12:33:48Z</time></trkpt><trkpt lat="44.013717076458484" lon="2.921108998504409"><ele>570.0</ele><time>2026-04-02T12:33:49Z</time></trkpt><trkpt lat="44.01371883854691" lon="2.921278606608564"><ele>570.0</ele><time>2026-04-02T12:33:50Z</time></trkpt><trkpt lat="44.0137517881225" lon="2.9214360209583217"><ele>570.0</ele><time>2026-04-02T12:33:51Z</time></trkpt><trkpt lat="44.013817780261796" lon="2.9216114243886713"><ele>570.0</ele><time>2026-04-02T12:33:52Z</time></trkpt><trkpt lat="44.01390420678967" lon="2.9218169034007127"><ele>570.0</ele><time>2026-04-02T12:33:53Z</time></trkpt><trkpt lat="44.01400365021708" lon="2.92203494220901"><ele>569.3333333333334</ele><time>2026-04-02T12:33:54Z</time></trkpt><trkpt lat="44.014102541535784" lon="2.9222471069450644"><ele>568.6666666666667</ele><time>2026-04-02T12:33:55Z</time></trkpt><trkpt lat="44.01420077304018" lon="2.922452450183589"><ele>568.0</ele><time>2026-04-02T12:33:56Z</time></trkpt><trkpt lat="44.01429613851216" lon="2.922657166336176"><ele>567.0</ele><time>2026-04-02T12:33:57Z</time></trkpt><trkpt lat="44.014375210977946" lon="2.922885238865838"><ele>566.0</ele><time>2026-04-02T12:33:58Z</time></trkpt><trkpt lat="44.01444214045458" lon="2.9231131706278903"><ele>565.0</ele><time>2026-04-02T12:33:59Z</time></trkpt><trkpt lat="44.01450732055166" lon="2.9233339301208106"><ele>566.5</ele><time>2026-04-02T12:34:00Z</time></trkpt><trkpt lat="44.01457441232334" lon="2.9235416179077687"><ele>568.0</ele><time>2026-04-02T12:34:01Z</time></trkpt><trkpt lat="44.01464060388079" lon="2.9237188355558676"><ele>569.5</ele><time>2026-04-02T12:34:02Z</time></trkpt><trkpt lat="44.01470154759719" lon="2.923857299842761"><ele>571.0</ele><time>2026-04-02T12:34:03Z</time></trkpt><trkpt lat="44.014800689658934" lon="2.9239886684936947"><ele>571.0</ele><time>2026-04-02T12:34:04Z</time></trkpt><trkpt lat="44.01491170054049" lon="2.9241042663648047"><ele>571.0</ele><time>2026-04-02T12:34:05Z</time></trkpt><trkpt lat="44.01498831305211" lon="2.9241914586004025"><ele>571.0</ele><time>2026-04-02T12:34:06Z</time></trkpt><trkpt lat="44.01507917373763" lon="2.9242415044034598"><ele>571.0</ele><time>2026-04-02T12:34:07Z</time></trkpt><trkpt lat="44.01519653557028" lon="2.924305168951926"><ele>572.5</ele><time>2026-04-02T12:34:08Z</time></trkpt><trkpt lat="44.01528310153249" lon="2.924380549154542"><ele>574.0</ele><time>2026-04-02T12:34:09Z</time></trkpt><trkpt lat="44.01533912531536" lon="2.924454407470634"><ele>575.5</ele><time>2026-04-02T12:34:10Z</time></trkpt><trkpt lat="44.01538998120025" lon="2.9246353495727804"><ele>577.0</ele><time>2026-04-02T12:34:12Z</time></trkpt><trkpt lat="44.01537593642342" lon="2.924838620799149"><ele>577.0</ele><time>2026-04-02T12:34:13Z</time></trkpt><trkpt lat="44.015456728128896" lon="2.925028351424995"><ele>577.0</ele><time>2026-04-02T12:34:14Z</time></trkpt><trkpt lat="44.01552827300508" lon="2.9252308068710833"><ele>577.0</ele><time>2026-04-02T12:34:15Z</time></trkpt><trkpt lat="44.01558760083427" lon="2.9254076523802954"><ele>576.25</ele><time>2026-04-02T12:34:16Z</time></trkpt><trkpt lat="44.015610905757725" lon="2.925606039021989"><ele>575.5</ele><time>2026-04-02T12:34:17Z</time></trkpt><trkpt lat="44.01564833409876" lon="2.925806235018272"><ele>574.75</ele><time>2026-04-02T12:34:18Z</time></trkpt><trkpt lat="44.0156927454451" lon="2.9259723175777514"><ele>574.0</ele><time>2026-04-02T12:34:19Z</time></trkpt><trkpt lat="44.015700851504576" lon="2.926143239521499"><ele>572.75</ele><time>2026-04-02T12:34:20Z</time></trkpt><trkpt lat="44.015716093830726" lon="2.926311741342341"><ele>571.5</ele><time>2026-04-02T12:34:21Z</time></trkpt><trkpt lat="44.01572811952229" lon="2.9264900248028267"><ele>570.25</ele><time>2026-04-02T12:34:22Z</time></trkpt><trkpt lat="44.01573731381882" lon="2.9267020521032268"><ele>569.0</ele><time>2026-04-02T12:34:23Z</time></trkpt><trkpt lat="44.01574270570705" lon="2.9269404120685136"><ele>568.0</ele><time>2026-04-02T12:34:24Z</time></trkpt><trkpt lat="44.015750774032355" lon="2.9271568427874537"><ele>567.0</ele><time>2026-04-02T12:34:25Z</time></trkpt><trkpt lat="44.015775712072696" lon="2.9273589100358706"><ele>566.0</ele><time>2026-04-02T12:34:26Z</time></trkpt><trkpt lat="44.01578880709747" lon="2.927536189469399"><ele>565.0</ele><time>2026-04-02T12:34:27Z</time></trkpt><trkpt lat="44.015826288363826" lon="2.927697444209061"><ele>562.25</ele><time>2026-04-02T12:34:28Z</time></trkpt><trkpt lat="44.01590502190543" lon="2.927850009397886"><ele>559.5</ele><time>2026-04-02T12:34:29Z</time></trkpt><trkpt lat="44.016014252813314" lon="2.9279887113478305"><ele>556.75</ele><time>2026-04-02T12:34:30Z</time></trkpt><trkpt lat="44.016127747648056" lon="2.9280968963512404"><ele>554.0</ele><time>2026-04-02T12:34:31Z</time></trkpt><trkpt lat="44.016229971802325" lon="2.9281732817958943"><ele>554.0</ele><time>2026-04-02T12:34:32Z</time></trkpt><trkpt lat="44.016289115479466" lon="2.9282724712578054"><ele>554.0</ele><time>2026-04-02T12:34:33Z</time></trkpt><trkpt lat="44.016314395354556" lon="2.928393171941136"><ele>554.0</ele><time>2026-04-02T12:34:34Z</time></trkpt><trkpt lat="44.016303490543066" lon="2.92852928126698"><ele>554.0</ele><time>2026-04-02T12:34:35Z</time></trkpt><trkpt lat="44.0162936783697" lon="2.9287190697372916"><ele>554.0</ele><time>2026-04-02T12:34:36Z</time></trkpt><trkpt lat="44.01628502496027" lon="2.928956263378808"><ele>554.0</ele><time>2026-04-02T12:34:37Z</time></trkpt><trkpt lat="44.01627191888066" lon="2.929221712802085"><ele>554.0</ele><time>2026-04-02T12:34:38Z</time></trkpt><trkpt lat="44.0162541341915" lon="2.9294562093418404"><ele>554.0</ele><time>2026-04-02T12:34:39Z</time></trkpt><trkpt lat="44.016238937472494" lon="2.9296562310718923"><ele>553.25</ele><time>2026-04-02T12:34:40Z</time></trkpt><trkpt lat="44.01622588704555" lon="2.9298457889431075"><ele>552.5</ele><time>2026-04-02T12:34:41Z</time></trkpt><trkpt lat="44.01621421331235" lon="2.9300317255884023"><ele>551.75</ele><time>2026-04-02T12:34:42Z</time></trkpt><trkpt lat="44.01620543270622" lon="2.9302127452621987"><ele>551.0</ele><time>2026-04-02T12:34:43Z</time></trkpt><trkpt lat="44.016189578882255" lon="2.93038538046343"><ele>549.75</ele><time>2026-04-02T12:34:44Z</time></trkpt><trkpt lat="44.016141860057395" lon="2.9305460948524296"><ele>548.5</ele><time>2026-04-02T12:34:45Z</time></trkpt><trkpt lat="44.01608941479789" lon="2.9307192957007056"><ele>547.25</ele><time>2026-04-02T12:34:46Z</time></trkpt><trkpt lat="44.01600745520493" lon="2.9309360282527885"><ele>546.0</ele><time>2026-04-02T12:34:47Z</time></trkpt><trkpt lat="44.01592251740698" lon="2.9311611694324684"><ele>544.75</ele><time>2026-04-02T12:34:48Z</time></trkpt><trkpt lat="44.01587935009346" lon="2.9313486724252127"><ele>543.5</ele><time>2026-04-02T12:34:49Z</time></trkpt><trkpt lat="44.01585185307284" lon="2.93152493342973"><ele>542.25</ele><time>2026-04-02T12:34:50Z</time></trkpt><trkpt lat="44.015858591724054" lon="2.931702946755165"><ele>541.0</ele><time>2026-04-02T12:34:51Z</time></trkpt><trkpt lat="44.01583018738194" lon="2.9318414547550504"><ele>540.4</ele><time>2026-04-02T12:34:52Z</time></trkpt><trkpt lat="44.015733443526834" lon="2.931918797949162"><ele>539.8</ele><time>2026-04-02T12:34:54Z</time></trkpt><trkpt lat="44.015644736673494" lon="2.9318240349786766"><ele>539.1999999999999</ele><time>2026-04-02T12:34:55Z</time></trkpt><trkpt lat="44.015585606046166" lon="2.9317165271032564"><ele>538.6</ele><time>2026-04-02T12:34:56Z</time></trkpt><trkpt lat="44.01553018352741" lon="2.9316084839771968"><ele>538.0</ele><time>2026-04-02T12:34:57Z</time></trkpt><trkpt lat="44.01547428239247" lon="2.9314720153664666"><ele>538.0</ele><time>2026-04-02T12:34:58Z</time></trkpt><trkpt lat="44.01540727510752" lon="2.931333484007308"><ele>538.0</ele><time>2026-04-02T12:34:59Z</time></trkpt><trkpt lat="44.015352993719716" lon="2.93122178955986"><ele>538.0</ele><time>2026-04-02T12:35:00Z</time></trkpt><trkpt lat="44.0152834883924" lon="2.9311277358923182"><ele>538.0</ele><time>2026-04-02T12:35:01Z</time></trkpt><trkpt lat="44.01517888515066" lon="2.931111789231279"><ele>538.0</ele><time>2026-04-02T12:35:02Z</time></trkpt><trkpt lat="44.01509864527665" lon="2.93120840713716"><ele>538.0</ele><time>2026-04-02T12:35:03Z</time></trkpt><trkpt lat="44.015098545857974" lon="2.9314485332601796"><ele>538.0</ele><time>2026-04-02T12:35:04Z</time></trkpt><trkpt lat="44.01506956434956" lon="2.9316787201566323"><ele>538.0</ele><time>2026-04-02T12:35:05Z</time></trkpt><trkpt lat="44.01505520924561" lon="2.9319187367366104"><ele>535.6666666666667</ele><time>2026-04-02T12:35:06Z</time></trkpt><trkpt lat="44.0150581475996" lon="2.932189397343242"><ele>533.3333333333334</ele><time>2026-04-02T12:35:07Z</time></trkpt><trkpt lat="44.015058045268866" lon="2.9324921964925506"><ele>531.0</ele><time>2026-04-02T12:35:08Z</time></trkpt><trkpt lat="44.015073034474526" lon="2.9327660064842087"><ele>529.0</ele><time>2026-04-02T12:35:09Z</time></trkpt><trkpt lat="44.01507011469775" lon="2.933007725302951"><ele>527.0</ele><time>2026-04-02T12:35:10Z</time></trkpt><trkpt lat="44.015063222142636" lon="2.9332118544133396"><ele>525.0</ele><time>2026-04-02T12:35:11Z</time></trkpt><trkpt lat="44.015005275483766" lon="2.933365449527665"><ele>523.0</ele><time>2026-04-02T12:35:12Z</time></trkpt><trkpt lat="44.01493343667903" lon="2.933462357908409"><ele>523.0</ele><time>2026-04-02T12:35:13Z</time></trkpt><trkpt lat="44.01484063401007" lon="2.9335338384650416"><ele>523.0</ele><time>2026-04-02T12:35:14Z</time></trkpt><trkpt lat="44.01472893117327" lon="2.933651274067543"><ele>523.0</ele><time>2026-04-02T12:35:15Z</time></trkpt><trkpt lat="44.014650981625046" lon="2.9338565071586866"><ele>523.0</ele><time>2026-04-02T12:35:16Z</time></trkpt><trkpt lat="44.01458752936713" lon="2.9341266526813445"><ele>517.5</ele><time>2026-04-02T12:35:17Z</time></trkpt><trkpt lat="44.01450288864187" lon="2.9343873808790137"><ele>512.0</ele><time>2026-04-02T12:35:18Z</time></trkpt><trkpt lat="44.01440578944658" lon="2.9346986712735834"><ele>512.0</ele><time>2026-04-02T12:35:19Z</time></trkpt><trkpt lat="44.014306454091916" lon="2.9349593290161082"><ele>512.0</ele><time>2026-04-02T12:35:20Z</time></trkpt><trkpt lat="44.01421650860223" lon="2.9351859225240244"><ele>512.0</ele><time>2026-04-02T12:35:21Z</time></trkpt><trkpt lat="44.01416248791405" lon="2.9353738551412136"><ele>512.2</ele><time>2026-04-02T12:35:22Z</time></trkpt><trkpt lat="44.014122899987015" lon="2.9355129748654263"><ele>512.4000000000001</ele><time>2026-04-02T12:35:23Z</time></trkpt><trkpt lat="44.01411853815348" lon="2.9356344982948914"><ele>512.5999999999999</ele><time>2026-04-02T12:35:24Z</time></trkpt><trkpt lat="44.01416733831099" lon="2.9357354039126875"><ele>512.8</ele><time>2026-04-02T12:35:27Z</time></trkpt><trkpt lat="44.014142653915584" lon="2.93585729931017"><ele>513.0</ele><time>2026-04-02T12:35:28Z</time></trkpt><trkpt lat="44.014144641928404" lon="2.935998644336943"><ele>514.0</ele><time>2026-04-02T12:35:29Z</time></trkpt><trkpt lat="44.014218061650745" lon="2.936164444056494"><ele>515.0</ele><time>2026-04-02T12:35:30Z</time></trkpt><trkpt lat="44.01420181384771" lon="2.9363908229573714"><ele>516.0</ele><time>2026-04-02T12:35:31Z</time></trkpt><trkpt lat="44.014169149014855" lon="2.9366852631843616"><ele>523.0</ele><time>2026-04-02T12:35:32Z</time></trkpt><trkpt lat="44.01414828321922" lon="2.9369457359249918"><ele>530.0</ele><time>2026-04-02T12:35:33Z</time></trkpt><trkpt lat="44.01412790083638" lon="2.9371771378913554"><ele>537.0</ele><time>2026-04-02T12:35:34Z</time></trkpt><trkpt lat="44.014115685006004" lon="2.937497076042604"><ele>536.3333333333334</ele><time>2026-04-02T12:35:35Z</time></trkpt><trkpt lat="44.01408693192302" lon="2.937746989071845"><ele>535.6666666666667</ele><time>2026-04-02T12:35:36Z</time></trkpt><trkpt lat="44.014063939490505" lon="2.938002103111937"><ele>535.0</ele><time>2026-04-02T12:35:37Z</time></trkpt><trkpt lat="44.01403799008791" lon="2.9383012895485288"><ele>533.6666666666667</ele><time>2026-04-02T12:35:38Z</time></trkpt><trkpt lat="44.01401157394032" lon="2.9385933224096683"><ele>532.3333333333334</ele><time>2026-04-02T12:35:39Z</time></trkpt><trkpt lat="44.01398603212588" lon="2.9388649077945512"><ele>531.0</ele><time>2026-04-02T12:35:40Z</time></trkpt><trkpt lat="44.01396387848063" lon="2.9391226347732218"><ele>528.6666666666666</ele><time>2026-04-02T12:35:41Z</time></trkpt><trkpt lat="44.013940588116355" lon="2.9393588966895083"><ele>526.3333333333333</ele><time>2026-04-02T12:35:42Z</time></trkpt><trkpt lat="44.013917555456565" lon="2.9395794889358013"><ele>524.0</ele><time>2026-04-02T12:35:43Z</time></trkpt><trkpt lat="44.01389057219759" lon="2.9398086776156593"><ele>522.6666666666666</ele><time>2026-04-02T12:35:44Z</time></trkpt><trkpt lat="44.01384611907367" lon="2.9400803007823333"><ele>521.3333333333334</ele><time>2026-04-02T12:35:45Z</time></trkpt><trkpt lat="44.01381060051264" lon="2.9402891222098333"><ele>520.0</ele><time>2026-04-02T12:35:46Z</time></trkpt><trkpt lat="44.01376056264158" lon="2.9405448428450374"><ele>520.0</ele><time>2026-04-02T12:35:47Z</time></trkpt><trkpt lat="44.01371165720603" lon="2.940801335442488"><ele>520.0</ele><time>2026-04-02T12:35:48Z</time></trkpt><trkpt lat="44.01365774449775" lon="2.941068469653738"><ele>520.0</ele><time>2026-04-02T12:35:49Z</time></trkpt><trkpt lat="44.01359860278141" lon="2.9413394378233497"><ele>519.3333333333334</ele><time>2026-04-02T12:35:50Z</time></trkpt><trkpt lat="44.01354480182093" lon="2.941618204910218"><ele>518.6666666666666</ele><time>2026-04-02T12:35:51Z</time></trkpt><trkpt lat="44.01349082275753" lon="2.94189120306046"><ele>518.0</ele><time>2026-04-02T12:35:52Z</time></trkpt><trkpt lat="44.01344101229109" lon="2.9421518916543716"><ele>517.0</ele><time>2026-04-02T12:35:53Z</time></trkpt><trkpt lat="44.01338802764823" lon="2.9424064768791602"><ele>516.0</ele><time>2026-04-02T12:35:54Z</time></trkpt><trkpt lat="44.013338291062794" lon="2.9426517567399206"><ele>515.0</ele><time>2026-04-02T12:35:55Z</time></trkpt><trkpt lat="44.01328314268123" lon="2.9429110318098104"><ele>515.0</ele><time>2026-04-02T12:35:56Z</time></trkpt><trkpt lat="44.01322694814657" lon="2.943181806706681"><ele>515.0</ele><time>2026-04-02T12:35:57Z</time></trkpt><trkpt lat="44.01318064238218" lon="2.9434555364944264"><ele>515.0</ele><time>2026-04-02T12:35:58Z</time></trkpt><trkpt lat="44.0131423284409" lon="2.9437250844337837"><ele>513.6666666666666</ele><time>2026-04-02T12:35:59Z</time></trkpt><trkpt lat="44.01311253055879" lon="2.943989939818833"><ele>512.3333333333334</ele><time>2026-04-02T12:36:00Z</time></trkpt><trkpt lat="44.01308598477512" lon="2.944252079135601"><ele>511.0</ele><time>2026-04-02T12:36:01Z</time></trkpt><trkpt lat="44.013065684512306" lon="2.944509174611698"><ele>511.0</ele><time>2026-04-02T12:36:02Z</time></trkpt><trkpt lat="44.01304465310066" lon="2.9447587482398876"><ele>511.0</ele><time>2026-04-02T12:36:03Z</time></trkpt><trkpt lat="44.01302164471036" lon="2.9450028101134884"><ele>511.0</ele><time>2026-04-02T12:36:04Z</time></trkpt><trkpt lat="44.01299951089949" lon="2.94523450388016"><ele>509.6666666666667</ele><time>2026-04-02T12:36:05Z</time></trkpt><trkpt lat="44.01297520267251" lon="2.9454611624906777"><ele>508.33333333333337</ele><time>2026-04-02T12:36:06Z</time></trkpt><trkpt lat="44.012951749128476" lon="2.945685579807121"><ele>507.0</ele><time>2026-04-02T12:36:07Z</time></trkpt><trkpt lat="44.01287902587638" lon="2.945887212097731"><ele>503.33333333333337</ele><time>2026-04-02T12:36:08Z</time></trkpt><trkpt lat="44.01278231430887" lon="2.9460907180773463"><ele>499.6666666666667</ele><time>2026-04-02T12:36:09Z</time></trkpt><trkpt lat="44.01264598109638" lon="2.946303279766235"><ele>496.0</ele><time>2026-04-02T12:36:10Z</time></trkpt><trkpt lat="44.01250434610552" lon="2.9465320874081113"><ele>501.0</ele><time>2026-04-02T12:36:11Z</time></trkpt><trkpt lat="44.01233912838528" lon="2.946786898567485"><ele>506.0</ele><time>2026-04-02T12:36:12Z</time></trkpt><trkpt lat="44.01221085268615" lon="2.9470525331970676"><ele>506.0</ele><time>2026-04-02T12:36:13Z</time></trkpt><trkpt lat="44.01210854761702" lon="2.9473237832175165"><ele>506.0</ele><time>2026-04-02T12:36:14Z</time></trkpt><trkpt lat="44.01202192043544" lon="2.9476098805537836"><ele>506.0</ele><time>2026-04-02T12:36:15Z</time></trkpt><trkpt lat="44.01194320620304" lon="2.9479145714707844"><ele>501.5</ele><time>2026-04-02T12:36:16Z</time></trkpt><trkpt lat="44.01187254339997" lon="2.948220663608524"><ele>497.0</ele><time>2026-04-02T12:36:17Z</time></trkpt><trkpt lat="44.01180339199959" lon="2.9485255642488135"><ele>494.0</ele><time>2026-04-02T12:36:18Z</time></trkpt><trkpt lat="44.01173093432084" lon="2.948829013680651"><ele>491.0</ele><time>2026-04-02T12:36:19Z</time></trkpt><trkpt lat="44.011663792209085" lon="2.9491187733747632"><ele>488.0</ele><time>2026-04-02T12:36:20Z</time></trkpt><trkpt lat="44.011601922929486" lon="2.9494083254802557"><ele>496.0</ele><time>2026-04-02T12:36:21Z</time></trkpt><trkpt lat="44.01155927659868" lon="2.9497199298558012"><ele>504.0</ele><time>2026-04-02T12:36:22Z</time></trkpt><trkpt lat="44.011538999253034" lon="2.950066509604564"><ele>504.0</ele><time>2026-04-02T12:36:23Z</time></trkpt><trkpt lat="44.011524534313324" lon="2.950416765919926"><ele>504.0</ele><time>2026-04-02T12:36:24Z</time></trkpt><trkpt lat="44.01150874792419" lon="2.950742979821138"><ele>502.33333333333337</ele><time>2026-04-02T12:36:25Z</time></trkpt><trkpt lat="44.011491850247886" lon="2.951045196197914"><ele>500.6666666666667</ele><time>2026-04-02T12:36:26Z</time></trkpt><trkpt lat="44.01148789881498" lon="2.9513307381156944"><ele>499.0</ele><time>2026-04-02T12:36:27Z</time></trkpt><trkpt lat="44.01149606000064" lon="2.9516037829334176"><ele>498.0</ele><time>2026-04-02T12:36:28Z</time></trkpt><trkpt lat="44.01152547568147" lon="2.951869518985103"><ele>497.0</ele><time>2026-04-02T12:36:29Z</time></trkpt><trkpt lat="44.01158902357822" lon="2.952126196069614"><ele>496.0</ele><time>2026-04-02T12:36:30Z</time></trkpt><trkpt lat="44.01170616567323" lon="2.9523715251467664"><ele>491.0</ele><time>2026-04-02T12:36:31Z</time></trkpt><trkpt lat="44.01185860005991" lon="2.95257803549647"><ele>486.0</ele><time>2026-04-02T12:36:32Z</time></trkpt><trkpt lat="44.01202241852621" lon="2.9527364984685573"><ele>481.0</ele><time>2026-04-02T12:36:33Z</time></trkpt><trkpt lat="44.01212356550571" lon="2.952921718021632"><ele>481.0</ele><time>2026-04-02T12:36:34Z</time></trkpt><trkpt lat="44.012137172376555" lon="2.9531621926051157"><ele>481.0</ele><time>2026-04-02T12:36:35Z</time></trkpt><trkpt lat="44.0121436806407" lon="2.953454614501763"><ele>481.0</ele><time>2026-04-02T12:36:36Z</time></trkpt><trkpt lat="44.012155464855226" lon="2.9537866281837912"><ele>480.5</ele><time>2026-04-02T12:36:37Z</time></trkpt><trkpt lat="44.01216469880507" lon="2.9541464350595206"><ele>480.0</ele><time>2026-04-02T12:36:38Z</time></trkpt><trkpt lat="44.01218014604591" lon="2.954503501655312"><ele>479.0</ele><time>2026-04-02T12:36:39Z</time></trkpt><trkpt lat="44.0121844587865" lon="2.954836581782392"><ele>478.0</ele><time>2026-04-02T12:36:40Z</time></trkpt><trkpt lat="44.01217895073502" lon="2.9551991804519107"><ele>478.0</ele><time>2026-04-02T12:36:41Z</time></trkpt><trkpt lat="44.01216276478079" lon="2.9555614825936396"><ele>478.0</ele><time>2026-04-02T12:36:42Z</time></trkpt><trkpt lat="44.01215984259866" lon="2.9558924964293545"><ele>477.6666666666667</ele><time>2026-04-02T12:36:43Z</time></trkpt><trkpt lat="44.01213621356565" lon="2.9561897060257443"><ele>477.33333333333337</ele><time>2026-04-02T12:36:44Z</time></trkpt><trkpt lat="44.012138123599634" lon="2.9564680727266657"><ele>477.0</ele><time>2026-04-02T12:36:45Z</time></trkpt><trkpt lat="44.01238243566078" lon="2.95673925911725"><ele>476.33333333333337</ele><time>2026-04-02T12:36:46Z</time></trkpt><trkpt lat="44.01246205382339" lon="2.9569905573388167"><ele>475.6666666666667</ele><time>2026-04-02T12:36:47Z</time></trkpt><trkpt lat="44.01251865786409" lon="2.9572466188329387"><ele>475.0</ele><time>2026-04-02T12:36:48Z</time></trkpt><trkpt lat="44.012579145927646" lon="2.9574939497822306"><ele>466.6666666666667</ele><time>2026-04-02T12:36:49Z</time></trkpt><trkpt lat="44.012617549048045" lon="2.9577533953760566"><ele>458.33333333333337</ele><time>2026-04-02T12:36:50Z</time></trkpt><trkpt lat="44.012616039406154" lon="2.9580627994810627"><ele>450.0</ele><time>2026-04-02T12:36:51Z</time></trkpt><trkpt lat="44.012574622911565" lon="2.9584046653061424"><ele>448.0</ele><time>2026-04-02T12:36:52Z</time></trkpt><trkpt lat="44.01252834172149" lon="2.958767602553625"><ele>446.0</ele><time>2026-04-02T12:36:53Z</time></trkpt><trkpt lat="44.01250631635707" lon="2.9591233334180598"><ele>444.3333333333333</ele><time>2026-04-02T12:36:54Z</time></trkpt><trkpt lat="44.012495774079646" lon="2.959423010603381"><ele>442.66666666666663</ele><time>2026-04-02T12:36:55Z</time></trkpt><trkpt lat="44.01249144294712" lon="2.9596983789399793"><ele>441.0</ele><time>2026-04-02T12:36:56Z</time></trkpt><trkpt lat="44.01249745425638" lon="2.9599455756069477"><ele>441.66666666666663</ele><time>2026-04-02T12:36:57Z</time></trkpt><trkpt lat="44.01252764372831" lon="2.9601748973220237"><ele>442.3333333333333</ele><time>2026-04-02T12:36:58Z</time></trkpt><trkpt lat="44.01259491217173" lon="2.9603807317671627"><ele>443.0</ele><time>2026-04-02T12:36:59Z</time></trkpt><trkpt lat="44.01268367697119" lon="2.9605676560269796"><ele>443.0</ele><time>2026-04-02T12:37:00Z</time></trkpt><trkpt lat="44.01277490958549" lon="2.960734345616155"><ele>443.0</ele><time>2026-04-02T12:37:01Z</time></trkpt><trkpt lat="44.01285288571621" lon="2.960900721500766"><ele>443.0</ele><time>2026-04-02T12:37:02Z</time></trkpt><trkpt lat="44.01291877263694" lon="2.9610649616682307"><ele>443.0</ele><time>2026-04-02T12:37:03Z</time></trkpt><trkpt lat="44.01294570193482" lon="2.9611980697790856"><ele>441.79999999999995</ele><time>2026-04-02T12:37:04Z</time></trkpt><trkpt lat="44.0129556835228" lon="2.9613101020053527"><ele>440.59999999999997</ele><time>2026-04-02T12:37:05Z</time></trkpt><trkpt lat="44.01293683153737" lon="2.9614424124499465"><ele>439.40000000000003</ele><time>2026-04-02T12:37:06Z</time></trkpt><trkpt lat="44.012902211747914" lon="2.9615643246125867"><ele>438.20000000000005</ele><time>2026-04-02T12:37:07Z</time></trkpt><trkpt lat="44.01286357840998" lon="2.961680835562535"><ele>437.0</ele><time>2026-04-02T12:37:08Z</time></trkpt><trkpt lat="44.01282706768884" lon="2.961794250604269"><ele>434.49999999999994</ele><time>2026-04-02T12:37:09Z</time></trkpt><trkpt lat="44.012790732094125" lon="2.9619012709683292"><ele>432.0</ele><time>2026-04-02T12:37:10Z</time></trkpt><trkpt lat="44.01275504901546" lon="2.961996515963559"><ele>429.5</ele><time>2026-04-02T12:37:11Z</time></trkpt><trkpt lat="44.01271921145953" lon="2.962082894474049"><ele>427.0</ele><time>2026-04-02T12:37:12Z</time></trkpt><trkpt lat="44.012687146288" lon="2.9621600296180657"><ele>424.49999999999994</ele><time>2026-04-02T12:37:13Z</time></trkpt><trkpt lat="44.0126106807551" lon="2.962285069172579"><ele>422.0</ele><time>2026-04-02T12:37:15Z</time></trkpt><trkpt lat="44.01255993311701" lon="2.9623371247165458"><ele>422.0</ele><time>2026-04-02T12:37:16Z</time></trkpt><trkpt lat="44.01250505712902" lon="2.9623815253481864"><ele>422.0</ele><time>2026-04-02T12:37:17Z</time></trkpt><trkpt lat="44.012387473049074" lon="2.9624701577943555"><ele>422.0</ele><time>2026-04-02T12:37:19Z</time></trkpt><trkpt lat="44.012326919203616" lon="2.9625042519739044"><ele>422.0</ele><time>2026-04-02T12:37:20Z</time></trkpt><trkpt lat="44.01221945324027" lon="2.9625843692512834"><ele>422.0</ele><time>2026-04-02T12:37:22Z</time></trkpt><trkpt lat="44.01215276595529" lon="2.9626252080741264"><ele>419.49999999999994</ele><time>2026-04-02T12:37:23Z</time></trkpt><trkpt lat="44.012087826321505" lon="2.9626610176318358"><ele>417.0</ele><time>2026-04-02T12:37:24Z</time></trkpt><trkpt lat="44.01200967614976" lon="2.9626749609737684"><ele>414.5</ele><time>2026-04-02T12:37:25Z</time></trkpt><trkpt lat="44.011930895706854" lon="2.962677854200861"><ele>412.0</ele><time>2026-04-02T12:37:26Z</time></trkpt><trkpt lat="44.011851064513394" lon="2.9626721045452453"><ele>409.49999999999994</ele><time>2026-04-02T12:37:27Z</time></trkpt><trkpt lat="44.011764336294185" lon="2.9626802865867354"><ele>407.0</ele><time>2026-04-02T12:37:28Z</time></trkpt><trkpt lat="44.01167946546088" lon="2.962709772268266"><ele>406.99999999999994</ele><time>2026-04-02T12:37:29Z</time></trkpt><trkpt lat="44.01160012974147" lon="2.9627561673565252"><ele>407.0</ele><time>2026-04-02T12:37:30Z</time></trkpt><trkpt lat="44.011536125761104" lon="2.962799686190454"><ele>407.0</ele><time>2026-04-02T12:37:31Z</time></trkpt><trkpt lat="44.01147488824826" lon="2.962844230226439"><ele>407.0</ele><time>2026-04-02T12:37:32Z</time></trkpt><trkpt lat="44.0114119687502" lon="2.9628812967964637"><ele>406.99999999999994</ele><time>2026-04-02T12:37:33Z</time></trkpt><trkpt lat="44.01133736517207" lon="2.962914920054583"><ele>407.0</ele><time>2026-04-02T12:37:34Z</time></trkpt><trkpt lat="44.011252867928704" lon="2.9629539388925332"><ele>407.0</ele><time>2026-04-02T12:37:35Z</time></trkpt><trkpt lat="44.0111654143262" lon="2.962990151827654"><ele>407.0</ele><time>2026-04-02T12:37:36Z</time></trkpt><trkpt lat="44.011067127575885" lon="2.9630134974388063"><ele>407.0</ele><time>2026-04-02T12:37:37Z</time></trkpt><trkpt lat="44.01096218329737" lon="2.963032255507677"><ele>407.0</ele><time>2026-04-02T12:37:38Z</time></trkpt><trkpt lat="44.010864412872685" lon="2.963048281033018"><ele>407.0</ele><time>2026-04-02T12:37:39Z</time></trkpt><trkpt lat="44.010772148068895" lon="2.9630599464056306"><ele>407.16666666666663</ele><time>2026-04-02T12:37:40Z</time></trkpt><trkpt lat="44.010683413897176" lon="2.9630668430726446"><ele>407.3333333333333</ele><time>2026-04-02T12:37:41Z</time></trkpt><trkpt lat="44.01059997660824" lon="2.963075694923764"><ele>407.5</ele><time>2026-04-02T12:37:42Z</time></trkpt><trkpt lat="44.01051818631554" lon="2.9630806226252426"><ele>407.66666666666663</ele><time>2026-04-02T12:37:43Z</time></trkpt><trkpt lat="44.01043641215432" lon="2.9630910766327028"><ele>407.8333333333333</ele><time>2026-04-02T12:37:44Z</time></trkpt><trkpt lat="44.01036862569934" lon="2.963104232169019"><ele>408.0</ele><time>2026-04-02T12:37:45Z</time></trkpt><trkpt lat="44.010290277415216" lon="2.963154030825568"><ele>408.0</ele><time>2026-04-02T12:37:47Z</time></trkpt><trkpt lat="44.01019406721067" lon="2.963119117287347"><ele>408.0</ele><time>2026-04-02T12:39:20Z</time></trkpt><trkpt lat="44.010100164502276" lon="2.9631149488353046"><ele>408.0</ele><time>2026-04-02T12:39:22Z</time></trkpt><trkpt lat="44.01013081293251" lon="2.963237305642101"><ele>408.0</ele><time>2026-04-02T12:39:41Z</time></trkpt><trkpt lat="44.01027225260402" lon="2.963267511534874"><ele>408.0</ele><time>2026-04-02T12:39:43Z</time></trkpt><trkpt lat="44.01037222827554" lon="2.9632603659712524"><ele>408.0</ele><time>2026-04-02T12:39:44Z</time></trkpt><trkpt lat="44.01050457252401" lon="2.963255535666626"><ele>408.0</ele><time>2026-04-02T12:39:45Z</time></trkpt><trkpt lat="44.01064129959079" lon="2.9632497634005923"><ele>408.0</ele><time>2026-04-02T12:39:46Z</time></trkpt><trkpt lat="44.010776644678444" lon="2.963241784930915"><ele>408.0</ele><time>2026-04-02T12:39:47Z</time></trkpt><trkpt lat="44.0108969506302" lon="2.9632364113150227"><ele>407.8333333333333</ele><time>2026-04-02T12:39:48Z</time></trkpt><trkpt lat="44.011005718661295" lon="2.963238740643285"><ele>407.66666666666663</ele><time>2026-04-02T12:39:49Z</time></trkpt><trkpt lat="44.01109613064054" lon="2.963236878233034"><ele>407.5</ele><time>2026-04-02T12:39:50Z</time></trkpt><trkpt lat="44.01117101083783" lon="2.963233459092033"><ele>407.3333333333333</ele><time>2026-04-02T12:39:51Z</time></trkpt><trkpt lat="44.0112430679381" lon="2.963228041183828"><ele>407.16666666666663</ele><time>2026-04-02T12:39:52Z</time></trkpt><trkpt lat="44.01131585790527" lon="2.963236571401769"><ele>407.0</ele><time>2026-04-02T12:39:53Z</time></trkpt><trkpt lat="44.01138058981422" lon="2.963293729895286"><ele>407.00000000000006</ele><time>2026-04-02T12:39:54Z</time></trkpt><trkpt lat="44.011445623537256" lon="2.9633266443597392"><ele>407.0</ele><time>2026-04-02T12:39:55Z</time></trkpt><trkpt lat="44.011505762916" lon="2.963372103192971"><ele>407.0</ele><time>2026-04-02T12:39:56Z</time></trkpt><trkpt lat="44.01156821361269" lon="2.963435015637418"><ele>407.0</ele><time>2026-04-02T12:39:57Z</time></trkpt><trkpt lat="44.01162487238654" lon="2.9635082782358912"><ele>407.0</ele><time>2026-04-02T12:39:58Z</time></trkpt><trkpt lat="44.01167699853251" lon="2.963572757305002"><ele>407.00000000000006</ele><time>2026-04-02T12:39:59Z</time></trkpt><trkpt lat="44.011746165290006" lon="2.963602705123033"><ele>407.0</ele><time>2026-04-02T12:40:00Z</time></trkpt><trkpt lat="44.01179565578137" lon="2.9636652610450125"><ele>406.3333333333333</ele><time>2026-04-02T12:40:01Z</time></trkpt><trkpt lat="44.01184144023946" lon="2.963726339771148"><ele>405.66666666666663</ele><time>2026-04-02T12:40:02Z</time></trkpt><trkpt lat="44.011901136097826" lon="2.963804017851406"><ele>405.0</ele><time>2026-04-02T12:40:03Z</time></trkpt><trkpt lat="44.01195415808044" lon="2.9639149080606573"><ele>404.33333333333337</ele><time>2026-04-02T12:40:04Z</time></trkpt><trkpt lat="44.012030596493844" lon="2.9639812031868646"><ele>403.6666666666667</ele><time>2026-04-02T12:40:05Z</time></trkpt><trkpt lat="44.01209617698885" lon="2.964064080949741"><ele>403.0</ele><time>2026-04-02T12:40:06Z</time></trkpt><trkpt lat="44.012139227202724" lon="2.964159292925008"><ele>403.0</ele><time>2026-04-02T12:40:07Z</time></trkpt><trkpt lat="44.01219518339269" lon="2.964230226362414"><ele>403.0</ele><time>2026-04-02T12:40:08Z</time></trkpt><trkpt lat="44.01217702983945" lon="2.9643423438852277"><ele>403.0</ele><time>2026-04-02T12:40:09Z</time></trkpt><trkpt lat="44.01216878622238" lon="2.9644353360355757"><ele>403.0</ele><time>2026-04-02T12:40:10Z</time></trkpt><trkpt lat="44.01211989791051" lon="2.9646032278668057"><ele>403.0</ele><time>2026-04-02T12:40:12Z</time></trkpt><trkpt lat="44.0120655203839" lon="2.96471305040839"><ele>403.0</ele><time>2026-04-02T12:40:13Z</time></trkpt><trkpt lat="44.01202393789839" lon="2.9648484568819655"><ele>403.0</ele><time>2026-04-02T12:40:14Z</time></trkpt><trkpt lat="44.011968010332446" lon="2.9649753569539614"><ele>403.0</ele><time>2026-04-02T12:40:15Z</time></trkpt><trkpt lat="44.011932653097716" lon="2.9651204451434476"><ele>403.0</ele><time>2026-04-02T12:40:16Z</time></trkpt><trkpt lat="44.01190038311237" lon="2.9652529325493284"><ele>403.0</ele><time>2026-04-02T12:40:17Z</time></trkpt><trkpt lat="44.01187108704051" lon="2.9653732087767803"><ele>402.83333333333337</ele><time>2026-04-02T12:40:18Z</time></trkpt><trkpt lat="44.01185422103173" lon="2.9654916675010714"><ele>402.6666666666667</ele><time>2026-04-02T12:40:19Z</time></trkpt><trkpt lat="44.01182190325827" lon="2.9655990054521064"><ele>402.5</ele><time>2026-04-02T12:40:20Z</time></trkpt><trkpt lat="44.01178917627084" lon="2.965703596779055"><ele>402.33333333333337</ele><time>2026-04-02T12:40:21Z</time></trkpt><trkpt lat="44.01176344587571" lon="2.9658070085547186"><ele>402.1666666666667</ele><time>2026-04-02T12:40:22Z</time></trkpt><trkpt lat="44.01173794729174" lon="2.9659041355903035"><ele>402.0</ele><time>2026-04-02T12:40:23Z</time></trkpt><trkpt lat="44.0116817781836" lon="2.9660317362088016"><ele>405.75</ele><time>2026-04-02T12:40:25Z</time></trkpt><trkpt lat="44.01154966580288" lon="2.966000058188713"><ele>409.5</ele><time>2026-04-02T12:40:27Z</time></trkpt><trkpt lat="44.011466279696045" lon="2.9660064156442703"><ele>413.25</ele><time>2026-04-02T12:40:28Z</time></trkpt><trkpt lat="44.01136012368772" lon="2.965990637170763"><ele>417.0</ele><time>2026-04-02T12:40:29Z</time></trkpt><trkpt lat="44.011220689394236" lon="2.9659466283067846"><ele>417.0</ele><time>2026-04-02T12:40:30Z</time></trkpt><trkpt lat="44.011075662013475" lon="2.965886696353491"><ele>417.0</ele><time>2026-04-02T12:40:31Z</time></trkpt><trkpt lat="44.01092093176926" lon="2.9658140797648276"><ele>417.0</ele><time>2026-04-02T12:40:32Z</time></trkpt><trkpt lat="44.01076126813102" lon="2.9657348156921755"><ele>415.66666666666663</ele><time>2026-04-02T12:40:33Z</time></trkpt><trkpt lat="44.010601828762745" lon="2.9656552665293896"><ele>414.3333333333333</ele><time>2026-04-02T12:40:34Z</time></trkpt><trkpt lat="44.01045112710203" lon="2.9655800769200695"><ele>413.0</ele><time>2026-04-02T12:40:35Z</time></trkpt><trkpt lat="44.01030516012983" lon="2.965507249475594"><ele>413.0</ele><time>2026-04-02T12:40:36Z</time></trkpt><trkpt lat="44.01015847304211" lon="2.9654323533691795"><ele>413.0</ele><time>2026-04-02T12:40:37Z</time></trkpt><trkpt lat="44.01000512281855" lon="2.965353996407147"><ele>413.0</ele><time>2026-04-02T12:40:38Z</time></trkpt><trkpt lat="44.00984796814691" lon="2.965274285696501"><ele>416.0</ele><time>2026-04-02T12:40:39Z</time></trkpt><trkpt lat="44.00969238119384" lon="2.9652000393890194"><ele>419.0</ele><time>2026-04-02T12:40:40Z</time></trkpt><trkpt lat="44.009542050672714" lon="2.965138221005617"><ele>422.0</ele><time>2026-04-02T12:40:41Z</time></trkpt><trkpt lat="44.0093725832493" lon="2.9650765021884076"><ele>418.0</ele><time>2026-04-02T12:40:42Z</time></trkpt><trkpt lat="44.0091966224786" lon="2.965006625782413"><ele>414.0</ele><time>2026-04-02T12:40:43Z</time></trkpt><trkpt lat="44.00902076873237" lon="2.9649429271374528"><ele>410.0</ele><time>2026-04-02T12:40:44Z</time></trkpt><trkpt lat="44.0088486246727" lon="2.9649306256641097"><ele>410.0</ele><time>2026-04-02T12:40:45Z</time></trkpt><trkpt lat="44.00867948182493" lon="2.964948886287658"><ele>410.0</ele><time>2026-04-02T12:40:46Z</time></trkpt><trkpt lat="44.00848422854274" lon="2.965010724788539"><ele>410.0</ele><time>2026-04-02T12:40:47Z</time></trkpt><trkpt lat="44.008283436454626" lon="2.9650289269559957"><ele>416.0</ele><time>2026-04-02T12:40:48Z</time></trkpt><trkpt lat="44.0080845477628" lon="2.9651048501901087"><ele>422.0</ele><time>2026-04-02T12:40:49Z</time></trkpt><trkpt lat="44.00789136364285" lon="2.9651682510661987"><ele>428.0</ele><time>2026-04-02T12:40:50Z</time></trkpt><trkpt lat="44.00770126184085" lon="2.9652156521968434"><ele>428.0</ele><time>2026-04-02T12:40:51Z</time></trkpt><trkpt lat="44.00751542197616" lon="2.9652805649467653"><ele>428.0</ele><time>2026-04-02T12:40:52Z</time></trkpt><trkpt lat="44.00733880875248" lon="2.9653477541851117"><ele>428.0</ele><time>2026-04-02T12:40:53Z</time></trkpt><trkpt lat="44.00715624574715" lon="2.965459792436813"><ele>424.3333333333333</ele><time>2026-04-02T12:40:54Z</time></trkpt><trkpt lat="44.00696962428216" lon="2.9655617261063316"><ele>420.66666666666663</ele><time>2026-04-02T12:40:55Z</time></trkpt><trkpt lat="44.00676911589598" lon="2.9656278815162644"><ele>417.0</ele><time>2026-04-02T12:40:56Z</time></trkpt><trkpt lat="44.00657147025766" lon="2.9657086547442844"><ele>414.33333333333337</ele><time>2026-04-02T12:40:57Z</time></trkpt><trkpt lat="44.00637070092867" lon="2.9657887212539116"><ele>411.6666666666667</ele><time>2026-04-02T12:40:58Z</time></trkpt><trkpt lat="44.006184010373204" lon="2.9659017216183288"><ele>409.0</ele><time>2026-04-02T12:40:59Z</time></trkpt><trkpt lat="44.005984363608825" lon="2.9659797350173323"><ele>411.0</ele><time>2026-04-02T12:41:00Z</time></trkpt><trkpt lat="44.00579129746314" lon="2.966076482924322"><ele>413.0</ele><time>2026-04-02T12:41:01Z</time></trkpt><trkpt lat="44.00560264237734" lon="2.9661728287910125"><ele>415.0</ele><time>2026-04-02T12:41:02Z</time></trkpt><trkpt lat="44.00542022659672" lon="2.9662725369727214"><ele>415.0</ele><time>2026-04-02T12:41:03Z</time></trkpt><trkpt lat="44.00524738539216" lon="2.9663658192239777"><ele>415.0</ele><time>2026-04-02T12:41:04Z</time></trkpt><trkpt lat="44.0050930386023" lon="2.9664456507284886"><ele>415.0</ele><time>2026-04-02T12:41:05Z</time></trkpt><trkpt lat="44.00493167589139" lon="2.9665279503457147"><ele>413.25</ele><time>2026-04-02T12:41:06Z</time></trkpt><trkpt lat="44.00478105374133" lon="2.966605290765099"><ele>411.5</ele><time>2026-04-02T12:41:07Z</time></trkpt><trkpt lat="44.00464118430044" lon="2.9666783587303716"><ele>409.75</ele><time>2026-04-02T12:41:08Z</time></trkpt><trkpt lat="44.00453732723953" lon="2.9667326137939334"><ele>408.0</ele><time>2026-04-02T12:41:09Z</time></trkpt><trkpt lat="44.00445376839535" lon="2.966776532339833"><ele>411.33333333333337</ele><time>2026-04-02T12:41:10Z</time></trkpt><trkpt lat="44.00434779427891" lon="2.966832918988982"><ele>414.6666666666667</ele><time>2026-04-02T12:41:11Z</time></trkpt><trkpt lat="44.00419835768261" lon="2.9669124313305435"><ele>418.0</ele><time>2026-04-02T12:41:12Z</time></trkpt><trkpt lat="44.0040247729339" lon="2.9670047924424847"><ele>418.0</ele><time>2026-04-02T12:41:13Z</time></trkpt><trkpt lat="44.00384703896964" lon="2.9671209326036063"><ele>418.0</ele><time>2026-04-02T12:41:14Z</time></trkpt><trkpt lat="44.00364859790188" lon="2.967216217604205"><ele>418.0</ele><time>2026-04-02T12:41:15Z</time></trkpt><trkpt lat="44.003447465737324" lon="2.967321490770148"><ele>415.6666666666667</ele><time>2026-04-02T12:41:16Z</time></trkpt><trkpt lat="44.00322976723758" lon="2.9673989264835807"><ele>413.33333333333337</ele><time>2026-04-02T12:41:17Z</time></trkpt><trkpt lat="44.00301573792801" lon="2.96749220511815"><ele>411.0</ele><time>2026-04-02T12:41:18Z</time></trkpt><trkpt lat="44.002809741982844" lon="2.967604935407998"><ele>412.0</ele><time>2026-04-02T12:41:19Z</time></trkpt><trkpt lat="44.002617199306265" lon="2.967695871997744"><ele>413.0</ele><time>2026-04-02T12:41:20Z</time></trkpt><trkpt lat="44.00242256779993" lon="2.9678067651052493"><ele>414.0</ele><time>2026-04-02T12:41:21Z</time></trkpt><trkpt lat="44.002230661351554" lon="2.9679378393218987"><ele>414.0</ele><time>2026-04-02T12:41:22Z</time></trkpt><trkpt lat="44.00204260682699" lon="2.968084762118675"><ele>414.0</ele><time>2026-04-02T12:41:23Z</time></trkpt><trkpt lat="44.001869860025856" lon="2.968233290114873"><ele>414.0</ele><time>2026-04-02T12:41:24Z</time></trkpt><trkpt lat="44.00171810950231" lon="2.968377421291843"><ele>413.4</ele><time>2026-04-02T12:41:25Z</time></trkpt><trkpt lat="44.001590437192846" lon="2.968514940813387"><ele>412.79999999999995</ele><time>2026-04-02T12:41:26Z</time></trkpt><trkpt lat="44.00149576926997" lon="2.968626132364365"><ele>412.20000000000005</ele><time>2026-04-02T12:41:27Z</time></trkpt><trkpt lat="44.001435298524974" lon="2.968715075439087"><ele>411.6</ele><time>2026-04-02T12:41:28Z</time></trkpt><trkpt lat="44.001397243289674" lon="2.9687971313616486"><ele>411.0</ele><time>2026-04-02T12:41:29Z</time></trkpt><trkpt lat="44.00140494560789" lon="2.9689575283654213"><ele>411.0</ele><time>2026-04-02T12:41:30Z</time></trkpt><trkpt lat="44.00136988738377" lon="2.9691433937866396"><ele>411.0</ele><time>2026-04-02T12:41:31Z</time></trkpt><trkpt lat="44.00125156909984" lon="2.969282611635146"><ele>411.0</ele><time>2026-04-02T12:41:32Z</time></trkpt><trkpt lat="44.001115718224746" lon="2.969450743834894"><ele>411.33333333333337</ele><time>2026-04-02T12:41:33Z</time></trkpt><trkpt lat="44.00099767041757" lon="2.9696381874227353"><ele>411.6666666666667</ele><time>2026-04-02T12:41:34Z</time></trkpt><trkpt lat="44.00086515331087" lon="2.9698495187849665"><ele>412.0</ele><time>2026-04-02T12:41:35Z</time></trkpt><trkpt lat="44.00072816930882" lon="2.9700745958427492"><ele>412.0</ele><time>2026-04-02T12:41:36Z</time></trkpt><trkpt lat="44.000561393618334" lon="2.9702919513507493"><ele>412.0</ele><time>2026-04-02T12:41:37Z</time></trkpt><trkpt lat="44.000409206359656" lon="2.9704940178500316"><ele>412.0</ele><time>2026-04-02T12:41:38Z</time></trkpt><trkpt lat="44.000279008930406" lon="2.970652913766545"><ele>412.0</ele><time>2026-04-02T12:41:39Z</time></trkpt><trkpt lat="44.0001557121646" lon="2.970795864118707"><ele>412.0</ele><time>2026-04-02T12:41:40Z</time></trkpt><trkpt lat="44.000039287247034" lon="2.970932969359564"><ele>412.0</ele><time>2026-04-02T12:41:41Z</time></trkpt><trkpt lat="43.99992841880979" lon="2.9710514804803436"><ele>413.75</ele><time>2026-04-02T12:41:42Z</time></trkpt><trkpt lat="43.99981631191214" lon="2.9711506414735207"><ele>415.5</ele><time>2026-04-02T12:41:43Z</time></trkpt><trkpt lat="43.99973276130773" lon="2.9712627751063816"><ele>417.25</ele><time>2026-04-02T12:41:44Z</time></trkpt><trkpt lat="43.99968104296571" lon="2.9713969833186282"><ele>419.0</ele><time>2026-04-02T12:41:45Z</time></trkpt><trkpt lat="43.99966742752894" lon="2.9715290964787195"><ele>419.0</ele><time>2026-04-02T12:41:46Z</time></trkpt><trkpt lat="43.99967478092961" lon="2.971683502654258"><ele>419.0</ele><time>2026-04-02T12:41:47Z</time></trkpt><trkpt lat="43.999670943554" lon="2.971880381552298"><ele>419.0</ele><time>2026-04-02T12:41:48Z</time></trkpt><trkpt lat="43.99960847160278" lon="2.97210584717791"><ele>419.0</ele><time>2026-04-02T12:41:49Z</time></trkpt><trkpt lat="43.99955910633412" lon="2.9723363898651516"><ele>434.3333333333333</ele><time>2026-04-02T12:41:50Z</time></trkpt><trkpt lat="43.99947170174609" lon="2.972572495888164"><ele>449.66666666666663</ele><time>2026-04-02T12:41:51Z</time></trkpt><trkpt lat="43.99937818688009" lon="2.972803368817093"><ele>465.0</ele><time>2026-04-02T12:41:52Z</time></trkpt><trkpt lat="43.999310583518835" lon="2.973043419506846"><ele>465.0</ele><time>2026-04-02T12:41:53Z</time></trkpt><trkpt lat="43.999273501652944" lon="2.9733107067573163"><ele>465.0</ele><time>2026-04-02T12:41:54Z</time></trkpt><trkpt lat="43.99925740094584" lon="2.9735862287913615"><ele>465.0</ele><time>2026-04-02T12:41:55Z</time></trkpt><trkpt lat="43.999252791445315" lon="2.9738524068469174"><ele>465.66666666666663</ele><time>2026-04-02T12:41:56Z</time></trkpt><trkpt lat="43.99926266937575" lon="2.9741308939734297"><ele>466.3333333333333</ele><time>2026-04-02T12:41:57Z</time></trkpt><trkpt lat="43.99929326030759" lon="2.974409445512806"><ele>467.0</ele><time>2026-04-02T12:41:58Z</time></trkpt><trkpt lat="43.999336528888286" lon="2.9746590474655124"><ele>467.0</ele><time>2026-04-02T12:41:59Z</time></trkpt><trkpt lat="43.99937905211665" lon="2.9749181580178568"><ele>467.0</ele><time>2026-04-02T12:42:00Z</time></trkpt><trkpt lat="43.99942758899724" lon="2.9751986713743386"><ele>467.0</ele><time>2026-04-02T12:42:01Z</time></trkpt><trkpt lat="43.99945104618071" lon="2.975463448821256"><ele>463.66666666666663</ele><time>2026-04-02T12:42:02Z</time></trkpt><trkpt lat="43.99948520103669" lon="2.975732746502948"><ele>460.33333333333337</ele><time>2026-04-02T12:42:03Z</time></trkpt><trkpt lat="43.99953286842733" lon="2.9760111568976897"><ele>457.0</ele><time>2026-04-02T12:42:04Z</time></trkpt><trkpt lat="43.99955326785188" lon="2.9762734369115362"><ele>454.6666666666667</ele><time>2026-04-02T12:42:05Z</time></trkpt><trkpt lat="43.9995788686664" lon="2.97650519207549"><ele>452.33333333333337</ele><time>2026-04-02T12:42:06Z</time></trkpt><trkpt lat="43.9995999171974" lon="2.9767245931459505"><ele>450.0</ele><time>2026-04-02T12:42:07Z</time></trkpt><trkpt lat="43.99960192736476" lon="2.9769271123298577"><ele>449.5</ele><time>2026-04-02T12:42:08Z</time></trkpt><trkpt lat="43.99960125059301" lon="2.977131604014865"><ele>449.0</ele><time>2026-04-02T12:42:09Z</time></trkpt><trkpt lat="43.99959687590707" lon="2.9773390584722828"><ele>448.5</ele><time>2026-04-02T12:42:10Z</time></trkpt><trkpt lat="43.99958874231421" lon="2.9775479136148193"><ele>448.0</ele><time>2026-04-02T12:42:11Z</time></trkpt><trkpt lat="43.99957049596242" lon="2.9777498502341313"><ele>450.0</ele><time>2026-04-02T12:42:12Z</time></trkpt><trkpt lat="43.99954008628408" lon="2.9779754505974094"><ele>452.0</ele><time>2026-04-02T12:42:13Z</time></trkpt><trkpt lat="43.99950019431629" lon="2.9782330097973686"><ele>454.0</ele><time>2026-04-02T12:42:14Z</time></trkpt><trkpt lat="43.99945168147044" lon="2.9785108417080712"><ele>459.0</ele><time>2026-04-02T12:42:15Z</time></trkpt><trkpt lat="43.999367230657256" lon="2.9787861376550064"><ele>464.0</ele><time>2026-04-02T12:42:16Z</time></trkpt><trkpt lat="43.99929248661303" lon="2.979036053442349"><ele>469.0</ele><time>2026-04-02T12:42:17Z</time></trkpt><trkpt lat="43.99924676732623" lon="2.979236405839706"><ele>472.79999999999995</ele><time>2026-04-02T12:42:18Z</time></trkpt><trkpt lat="43.99919676304934" lon="2.9793915627922596"><ele>476.59999999999997</ele><time>2026-04-02T12:42:19Z</time></trkpt><trkpt lat="43.999156316343196" lon="2.979513776753803"><ele>480.4</ele><time>2026-04-02T12:42:20Z</time></trkpt><trkpt lat="43.9991180385927" lon="2.979607605657125"><ele>484.2</ele><time>2026-04-02T12:42:21Z</time></trkpt><trkpt lat="43.999082147756575" lon="2.979730206757587"><ele>488.0</ele><time>2026-04-02T12:42:23Z</time></trkpt><trkpt lat="43.9991026524445" lon="2.9796425242377045"><ele>473.66666666666663</ele><time>2026-04-02T12:42:44Z</time></trkpt><trkpt lat="43.999060486057076" lon="2.9798468366435396"><ele>459.33333333333337</ele><time>2026-04-02T12:44:00Z</time></trkpt><trkpt lat="43.99902174216707" lon="2.98002234214356"><ele>445.0</ele><time>2026-04-02T12:44:01Z</time></trkpt><trkpt lat="43.99896956652445" lon="2.980247438379399"><ele>445.0</ele><time>2026-04-02T12:44:02Z</time></trkpt><trkpt lat="43.99890794981007" lon="2.98048384668378"><ele>445.0</ele><time>2026-04-02T12:44:03Z</time></trkpt><trkpt lat="43.99885403048007" lon="2.9807023060468207"><ele>445.0</ele><time>2026-04-02T12:44:04Z</time></trkpt><trkpt lat="43.99880476454518" lon="2.9809013934776525"><ele>446.6666666666667</ele><time>2026-04-02T12:44:05Z</time></trkpt><trkpt lat="43.998760877198976" lon="2.9811504697029694"><ele>448.33333333333337</ele><time>2026-04-02T12:44:06Z</time></trkpt><trkpt lat="43.9987223304443" lon="2.9814165297854838"><ele>450.0</ele><time>2026-04-02T12:44:07Z</time></trkpt><trkpt lat="43.998683095380564" lon="2.9816793381519715"><ele>451.33333333333337</ele><time>2026-04-02T12:44:08Z</time></trkpt><trkpt lat="43.99864195168707" lon="2.9819709504128107"><ele>452.6666666666667</ele><time>2026-04-02T12:44:09Z</time></trkpt><trkpt lat="43.998601297630564" lon="2.9822603707963213"><ele>454.0</ele><time>2026-04-02T12:44:10Z</time></trkpt><trkpt lat="43.998564501741875" lon="2.9825355787359924"><ele>455.33333333333337</ele><time>2026-04-02T12:44:11Z</time></trkpt><trkpt lat="43.99853036902543" lon="2.9827875318456805"><ele>456.66666666666663</ele><time>2026-04-02T12:44:12Z</time></trkpt><trkpt lat="43.99850213502573" lon="2.9830264176779884"><ele>458.0</ele><time>2026-04-02T12:44:13Z</time></trkpt><trkpt lat="43.998502896701744" lon="2.9832554408357757"><ele>456.0</ele><time>2026-04-02T12:44:14Z</time></trkpt><trkpt lat="43.99854826775119" lon="2.9834827438431195"><ele>454.0</ele><time>2026-04-02T12:44:15Z</time></trkpt><trkpt lat="43.99861587162566" lon="2.9837112422828644"><ele>452.0</ele><time>2026-04-02T12:44:16Z</time></trkpt><trkpt lat="43.99869422892296" lon="2.9839344278237934"><ele>452.0</ele><time>2026-04-02T12:44:17Z</time></trkpt><trkpt lat="43.998741291715014" lon="2.98417367703295"><ele>452.0</ele><time>2026-04-02T12:44:18Z</time></trkpt><trkpt lat="43.99879118377787" lon="2.9844102529438064"><ele>452.0</ele><time>2026-04-02T12:44:19Z</time></trkpt><trkpt lat="43.99885459842819" lon="2.9846503493333856"><ele>448.66666666666663</ele><time>2026-04-02T12:44:20Z</time></trkpt><trkpt lat="43.998901415600365" lon="2.9848938723258636"><ele>445.33333333333337</ele><time>2026-04-02T12:44:21Z</time></trkpt><trkpt lat="43.9989552770531" lon="2.985147195900004"><ele>442.0</ele><time>2026-04-02T12:44:22Z</time></trkpt><trkpt lat="43.99901516403826" lon="2.9854105253302072"><ele>439.33333333333337</ele><time>2026-04-02T12:44:23Z</time></trkpt><trkpt lat="43.99908156856121" lon="2.9856697287394103"><ele>436.66666666666663</ele><time>2026-04-02T12:44:24Z</time></trkpt><trkpt lat="43.99917605551307" lon="2.9859316695410123"><ele>434.0</ele><time>2026-04-02T12:44:25Z</time></trkpt><trkpt lat="43.99929479368521" lon="2.986213007391979"><ele>437.0</ele><time>2026-04-02T12:44:26Z</time></trkpt><trkpt lat="43.99941937039372" lon="2.986510948030042"><ele>440.0</ele><time>2026-04-02T12:44:27Z</time></trkpt><trkpt lat="43.999540061731736" lon="2.9868014123464306"><ele>440.0</ele><time>2026-04-02T12:44:28Z</time></trkpt><trkpt lat="43.99965978080406" lon="2.9870966017218596"><ele>440.0</ele><time>2026-04-02T12:44:29Z</time></trkpt><trkpt lat="43.999771936300185" lon="2.9873826073026586"><ele>433.0</ele><time>2026-04-02T12:44:30Z</time></trkpt><trkpt lat="43.99988493294521" lon="2.987674790334699"><ele>426.0</ele><time>2026-04-02T12:44:31Z</time></trkpt><trkpt lat="44.000003247575144" lon="2.9879495611437257"><ele>426.0</ele><time>2026-04-02T12:44:32Z</time></trkpt><trkpt lat="44.00012757591702" lon="2.9882220789722074"><ele>426.0</ele><time>2026-04-02T12:44:33Z</time></trkpt><trkpt lat="44.00025819420823" lon="2.988492262588576"><ele>424.5</ele><time>2026-04-02T12:44:34Z</time></trkpt><trkpt lat="44.00039145047069" lon="2.988760008587897"><ele>423.0</ele><time>2026-04-02T12:44:35Z</time></trkpt><trkpt lat="44.000520878680945" lon="2.9890056459905865"><ele>422.0</ele><time>2026-04-02T12:44:36Z</time></trkpt><trkpt lat="44.00064696040515" lon="2.989257853920664"><ele>421.0</ele><time>2026-04-02T12:44:37Z</time></trkpt><trkpt lat="44.00076140824426" lon="2.989490973173759"><ele>420.0</ele><time>2026-04-02T12:44:38Z</time></trkpt><trkpt lat="44.00086194406957" lon="2.98971041671669"><ele>423.33333333333337</ele><time>2026-04-02T12:44:39Z</time></trkpt><trkpt lat="44.00092300813424" lon="2.9899509280669867"><ele>426.6666666666667</ele><time>2026-04-02T12:44:40Z</time></trkpt><trkpt lat="44.00097108961673" lon="2.9901794024511523"><ele>430.0</ele><time>2026-04-02T12:44:41Z</time></trkpt><trkpt lat="44.00102606365643" lon="2.990407478271478"><ele>430.0</ele><time>2026-04-02T12:44:42Z</time></trkpt><trkpt lat="44.00106188452374" lon="2.990653509226027"><ele>430.0</ele><time>2026-04-02T12:44:43Z</time></trkpt><trkpt lat="44.001068221102784" lon="2.9908803513771867"><ele>430.0</ele><time>2026-04-02T12:44:44Z</time></trkpt><trkpt lat="44.00108757164913" lon="2.9911297487501636"><ele>429.6666666666667</ele><time>2026-04-02T12:44:45Z</time></trkpt><trkpt lat="44.001067820364305" lon="2.9914161990412733"><ele>429.33333333333337</ele><time>2026-04-02T12:44:46Z</time></trkpt><trkpt lat="44.00105505080428" lon="2.9917147132575446"><ele>429.0</ele><time>2026-04-02T12:44:47Z</time></trkpt><trkpt lat="44.001038370081595" lon="2.9920487496705896"><ele>429.0</ele><time>2026-04-02T12:44:48Z</time></trkpt><trkpt lat="44.00099885352611" lon="2.9923628778240805"><ele>429.0</ele><time>2026-04-02T12:44:49Z</time></trkpt><trkpt lat="44.00095012263792" lon="2.992683006707394"><ele>429.33333333333337</ele><time>2026-04-02T12:44:50Z</time></trkpt><trkpt lat="44.000889851542986" lon="2.9929876300059077"><ele>429.6666666666667</ele><time>2026-04-02T12:44:51Z</time></trkpt><trkpt lat="44.00081000080067" lon="2.9932616182759157"><ele>430.0</ele><time>2026-04-02T12:44:52Z</time></trkpt><trkpt lat="44.0007065206584" lon="2.993502295390635"><ele>430.0</ele><time>2026-04-02T12:44:53Z</time></trkpt><trkpt lat="44.000578488203324" lon="2.993706313849238"><ele>430.0</ele><time>2026-04-02T12:44:54Z</time></trkpt><trkpt lat="44.000435479542105" lon="2.9938799915339573"><ele>430.0</ele><time>2026-04-02T12:44:55Z</time></trkpt><trkpt lat="44.00028545941412" lon="2.9940300759575096"><ele>431.33333333333337</ele><time>2026-04-02T12:44:56Z</time></trkpt><trkpt lat="44.0001634206892" lon="2.9941940922341113"><ele>432.66666666666663</ele><time>2026-04-02T12:44:57Z</time></trkpt><trkpt lat="44.00006994125912" lon="2.9943710446913685"><ele>434.0</ele><time>2026-04-02T12:44:58Z</time></trkpt><trkpt lat="43.99999510049969" lon="2.994605199872306"><ele>434.0</ele><time>2026-04-02T12:44:59Z</time></trkpt><trkpt lat="43.999947993565364" lon="2.9948541152208654"><ele>434.0</ele><time>2026-04-02T12:45:00Z</time></trkpt><trkpt lat="43.9999287164362" lon="2.9951077845119776"><ele>434.0</ele><time>2026-04-02T12:45:01Z</time></trkpt><trkpt lat="43.99992175833692" lon="2.9953592241101323"><ele>435.66666666666663</ele><time>2026-04-02T12:45:02Z</time></trkpt><trkpt lat="43.99988844654288" lon="2.9956036451896737"><ele>437.33333333333337</ele><time>2026-04-02T12:45:03Z</time></trkpt><trkpt lat="43.999906016928435" lon="2.995852615096695"><ele>439.0</ele><time>2026-04-02T12:45:04Z</time></trkpt><trkpt lat="43.9999251928658" lon="2.9961050214094738"><ele>439.6666666666667</ele><time>2026-04-02T12:45:05Z</time></trkpt><trkpt lat="43.99995741884522" lon="2.9963477004512997"><ele>440.33333333333337</ele><time>2026-04-02T12:45:06Z</time></trkpt><trkpt lat="43.99994285916169" lon="2.996589691252465"><ele>441.0</ele><time>2026-04-02T12:45:07Z</time></trkpt><trkpt lat="43.999924839491754" lon="2.9968372548760867"><ele>441.0</ele><time>2026-04-02T12:45:08Z</time></trkpt><trkpt lat="43.99990892629036" lon="2.997114342259945"><ele>441.0</ele><time>2026-04-02T12:45:09Z</time></trkpt><trkpt lat="43.9999155432303" lon="2.997388167949673"><ele>441.0</ele><time>2026-04-02T12:45:10Z</time></trkpt><trkpt lat="43.999935402022984" lon="2.9976576082909485"><ele>440.33333333333337</ele><time>2026-04-02T12:45:11Z</time></trkpt><trkpt lat="43.999964344411445" lon="2.9979197110163365"><ele>439.6666666666667</ele><time>2026-04-02T12:45:12Z</time></trkpt><trkpt lat="43.99999963130724" lon="2.9981804997384542"><ele>439.0</ele><time>2026-04-02T12:45:13Z</time></trkpt><trkpt lat="44.00005832969835" lon="2.998430141268633"><ele>438.0</ele><time>2026-04-02T12:45:14Z</time></trkpt><trkpt lat="44.00012701904313" lon="2.998665641840794"><ele>437.0</ele><time>2026-04-02T12:45:15Z</time></trkpt><trkpt lat="44.00018244246738" lon="2.9988913559874657"><ele>436.0</ele><time>2026-04-02T12:45:16Z</time></trkpt><trkpt lat="44.0002280428245" lon="2.9991254235514293"><ele>434.6666666666667</ele><time>2026-04-02T12:45:17Z</time></trkpt><trkpt lat="44.00026397629233" lon="2.99939264886639"><ele>433.33333333333337</ele><time>2026-04-02T12:45:18Z</time></trkpt><trkpt lat="44.000279486851426" lon="2.999681938782607"><ele>432.0</ele><time>2026-04-02T12:45:19Z</time></trkpt><trkpt lat="44.00027873923546" lon="2.9999679430031883"><ele>432.0</ele><time>2026-04-02T12:45:20Z</time></trkpt><trkpt lat="44.000288336900894" lon="3.0002562483466932"><ele>432.0</ele><time>2026-04-02T12:45:21Z</time></trkpt><trkpt lat="44.00030898877816" lon="3.0005513662667"><ele>432.0</ele><time>2026-04-02T12:45:22Z</time></trkpt><trkpt lat="44.00032786316111" lon="3.0008436558997014"><ele>432.0</ele><time>2026-04-02T12:45:23Z</time></trkpt><trkpt lat="44.00035924604042" lon="3.001134448378132"><ele>432.0</ele><time>2026-04-02T12:45:24Z</time></trkpt><trkpt lat="44.00039849596812" lon="3.001424317465938"><ele>432.0</ele><time>2026-04-02T12:45:25Z</time></trkpt><trkpt lat="44.00044136371688" lon="3.0017146827183194"><ele>432.0</ele><time>2026-04-02T12:45:26Z</time></trkpt><trkpt lat="44.000491684519204" lon="3.0020032936779635"><ele>432.0</ele><time>2026-04-02T12:45:27Z</time></trkpt><trkpt lat="44.00054859935295" lon="3.0022886096118704"><ele>432.0</ele><time>2026-04-02T12:45:28Z</time></trkpt><trkpt lat="44.000601388156966" lon="3.00255856851206"><ele>432.0</ele><time>2026-04-02T12:45:29Z</time></trkpt><trkpt lat="44.000655827692576" lon="3.002841030584544"><ele>432.0</ele><time>2026-04-02T12:45:30Z</time></trkpt><trkpt lat="44.00069490378659" lon="3.003109916934688"><ele>432.0</ele><time>2026-04-02T12:45:31Z</time></trkpt><trkpt lat="44.000721108082104" lon="3.0033803553104077"><ele>432.33333333333337</ele><time>2026-04-02T12:45:32Z</time></trkpt><trkpt lat="44.00073594927633" lon="3.003642234263189"><ele>432.6666666666667</ele><time>2026-04-02T12:45:33Z</time></trkpt><trkpt lat="44.00074449675584" lon="3.003874419802709"><ele>433.0</ele><time>2026-04-02T12:45:34Z</time></trkpt><trkpt lat="44.000746475291734" lon="3.0040946136432884"><ele>433.0</ele><time>2026-04-02T12:45:35Z</time></trkpt><trkpt lat="44.0007248721305" lon="3.004277017334471"><ele>433.0</ele><time>2026-04-02T12:45:36Z</time></trkpt><trkpt lat="44.000654385521955" lon="3.00444403924795"><ele>433.0</ele><time>2026-04-02T12:45:37Z</time></trkpt><trkpt lat="44.00053657477279" lon="3.0045958563784603"><ele>433.0</ele><time>2026-04-02T12:45:38Z</time></trkpt><trkpt lat="44.000402440672104" lon="3.004774685375777"><ele>434.0</ele><time>2026-04-02T12:45:39Z</time></trkpt><trkpt lat="44.000291864818706" lon="3.0050299021739058"><ele>435.0</ele><time>2026-04-02T12:45:40Z</time></trkpt><trkpt lat="44.00019580721019" lon="3.0053027361596025"><ele>436.0</ele><time>2026-04-02T12:45:41Z</time></trkpt><trkpt lat="44.00009022429796" lon="3.0055469242369375"><ele>436.0</ele><time>2026-04-02T12:45:42Z</time></trkpt><trkpt lat="43.99996018402221" lon="3.0057833716252342"><ele>436.0</ele><time>2026-04-02T12:45:43Z</time></trkpt><trkpt lat="43.99983120172549" lon="3.006004210821676"><ele>436.0</ele><time>2026-04-02T12:45:44Z</time></trkpt><trkpt lat="43.99971889329319" lon="3.0062398037008746"><ele>440.6666666666667</ele><time>2026-04-02T12:45:45Z</time></trkpt><trkpt lat="43.99961605537303" lon="3.006484641991939"><ele>445.33333333333337</ele><time>2026-04-02T12:45:46Z</time></trkpt><trkpt lat="43.999521481238766" lon="3.006730244838553"><ele>450.0</ele><time>2026-04-02T12:45:47Z</time></trkpt><trkpt lat="43.99943877078262" lon="3.0069753126385668"><ele>457.66666666666663</ele><time>2026-04-02T12:45:48Z</time></trkpt><trkpt lat="43.99936657844577" lon="3.0072109460371887"><ele>465.3333333333333</ele><time>2026-04-02T12:45:49Z</time></trkpt><trkpt lat="43.999304445279805" lon="3.0074596996681664"><ele>473.0</ele><time>2026-04-02T12:45:50Z</time></trkpt><trkpt lat="43.99926997581182" lon="3.007728093376165"><ele>479.3333333333333</ele><time>2026-04-02T12:45:51Z</time></trkpt><trkpt lat="43.99927548652761" lon="3.008014937326026"><ele>485.66666666666663</ele><time>2026-04-02T12:45:52Z</time></trkpt><trkpt lat="43.99931174250056" lon="3.008316192117715"><ele>492.0</ele><time>2026-04-02T12:45:53Z</time></trkpt><trkpt lat="43.99936732928517" lon="3.0086305188067994"><ele>493.33333333333337</ele><time>2026-04-02T12:45:54Z</time></trkpt><trkpt lat="43.999427674523595" lon="3.008933734933773"><ele>494.6666666666667</ele><time>2026-04-02T12:45:55Z</time></trkpt><trkpt lat="43.99950701733014" lon="3.0092182095981883"><ele>496.0</ele><time>2026-04-02T12:45:56Z</time></trkpt><trkpt lat="43.99959963212307" lon="3.0095002040597687"><ele>490.0</ele><time>2026-04-02T12:45:57Z</time></trkpt><trkpt lat="43.99968700010389" lon="3.009793836140903"><ele>484.0</ele><time>2026-04-02T12:45:58Z</time></trkpt><trkpt lat="43.99978299350605" lon="3.0100756832161037"><ele>477.5</ele><time>2026-04-02T12:45:59Z</time></trkpt><trkpt lat="43.99988310112856" lon="3.0103743611761975"><ele>471.0</ele><time>2026-04-02T12:46:00Z</time></trkpt><trkpt lat="43.99996873517344" lon="3.0106764926569762"><ele>464.5</ele><time>2026-04-02T12:46:01Z</time></trkpt><trkpt lat="44.00005984910707" lon="3.0109705508907187"><ele>458.0</ele><time>2026-04-02T12:46:02Z</time></trkpt><trkpt lat="44.000172556357185" lon="3.0112503657514473"><ele>458.0</ele><time>2026-04-02T12:46:03Z</time></trkpt><trkpt lat="44.00027478050088" lon="3.0115283621426685"><ele>458.0</ele><time>2026-04-02T12:46:04Z</time></trkpt><trkpt lat="44.00035982017598" lon="3.0118099833180954"><ele>458.0</ele><time>2026-04-02T12:46:05Z</time></trkpt><trkpt lat="44.000435989267736" lon="3.012086556984024"><ele>454.0</ele><time>2026-04-02T12:46:06Z</time></trkpt><trkpt lat="44.00047473830727" lon="3.012384145665584"><ele>450.0</ele><time>2026-04-02T12:46:07Z</time></trkpt><trkpt lat="44.00052538425944" lon="3.012665424273925"><ele>446.0</ele><time>2026-04-02T12:46:08Z</time></trkpt><trkpt lat="44.00054444794741" lon="3.012945845583757"><ele>444.5</ele><time>2026-04-02T12:46:09Z</time></trkpt><trkpt lat="44.000540454425845" lon="3.013264894128491"><ele>443.0</ele><time>2026-04-02T12:46:10Z</time></trkpt><trkpt lat="44.00051670949088" lon="3.013589425746033"><ele>443.0</ele><time>2026-04-02T12:46:11Z</time></trkpt><trkpt lat="44.000472051292306" lon="3.0139233874151428"><ele>443.0</ele><time>2026-04-02T12:46:12Z</time></trkpt><trkpt lat="44.00040186121065" lon="3.0142609300182293"><ele>443.0</ele><time>2026-04-02T12:46:13Z</time></trkpt><trkpt lat="44.00031371954136" lon="3.0146238631222806"><ele>443.0</ele><time>2026-04-02T12:46:14Z</time></trkpt><trkpt lat="44.00022798963086" lon="3.014964028900443"><ele>445.5</ele><time>2026-04-02T12:46:15Z</time></trkpt><trkpt lat="44.00013942558254" lon="3.015266487371848"><ele>448.0</ele><time>2026-04-02T12:46:16Z</time></trkpt><trkpt lat="44.000055437448545" lon="3.0155503162316952"><ele>450.0</ele><time>2026-04-02T12:46:17Z</time></trkpt><trkpt lat="43.99998407112852" lon="3.015875047355596"><ele>452.0</ele><time>2026-04-02T12:46:18Z</time></trkpt><trkpt lat="43.999927979715245" lon="3.016223308245972"><ele>452.0</ele><time>2026-04-02T12:46:19Z</time></trkpt><trkpt lat="43.99989265209099" lon="3.0166171450344534"><ele>452.0</ele><time>2026-04-02T12:46:20Z</time></trkpt><trkpt lat="43.999852488954375" lon="3.017011462857637"><ele>458.5</ele><time>2026-04-02T12:46:21Z</time></trkpt><trkpt lat="43.99981454365406" lon="3.0173691053151326"><ele>465.0</ele><time>2026-04-02T12:46:22Z</time></trkpt><trkpt lat="43.99978584342045" lon="3.0177217131093497"><ele>466.0</ele><time>2026-04-02T12:46:23Z</time></trkpt><trkpt lat="43.99978174305906" lon="3.0180569628015483"><ele>467.0</ele><time>2026-04-02T12:46:24Z</time></trkpt><trkpt lat="43.99976818203276" lon="3.0184019679391665"><ele>469.5</ele><time>2026-04-02T12:46:25Z</time></trkpt><trkpt lat="43.999762394779175" lon="3.018729936025706"><ele>472.0</ele><time>2026-04-02T12:46:26Z</time></trkpt><trkpt lat="43.99973597481844" lon="3.0190497505780804"><ele>472.5</ele><time>2026-04-02T12:46:27Z</time></trkpt><trkpt lat="43.999672937656506" lon="3.019351151718642"><ele>473.0</ele><time>2026-04-02T12:46:28Z</time></trkpt><trkpt lat="43.999602273933114" lon="3.019664229303924"><ele>471.0</ele><time>2026-04-02T12:46:29Z</time></trkpt><trkpt lat="43.99962576295979" lon="3.019991762685803"><ele>469.0</ele><time>2026-04-02T12:46:30Z</time></trkpt><trkpt lat="43.99960609397967" lon="3.020303921755757"><ele>469.0</ele><time>2026-04-02T12:46:31Z</time></trkpt><trkpt lat="43.999546324881734" lon="3.0206225272637903"><ele>469.0</ele><time>2026-04-02T12:46:32Z</time></trkpt><trkpt lat="43.99948038997827" lon="3.0209039163215348"><ele>472.6666666666667</ele><time>2026-04-02T12:46:33Z</time></trkpt><trkpt lat="43.999400175212514" lon="3.02116816899337"><ele>476.33333333333337</ele><time>2026-04-02T12:46:34Z</time></trkpt><trkpt lat="43.999316438528666" lon="3.021429648509517"><ele>480.0</ele><time>2026-04-02T12:46:35Z</time></trkpt><trkpt lat="43.99922843699459" lon="3.021693072027797"><ele>476.0</ele><time>2026-04-02T12:46:36Z</time></trkpt><trkpt lat="43.99914191229841" lon="3.0219586046960396"><ele>472.0</ele><time>2026-04-02T12:46:37Z</time></trkpt><trkpt lat="43.99905822780292" lon="3.022225265618163"><ele>468.0</ele><time>2026-04-02T12:46:38Z</time></trkpt><trkpt lat="43.99897314079168" lon="3.022496395847869"><ele>468.0</ele><time>2026-04-02T12:46:39Z</time></trkpt><trkpt lat="43.99888467809163" lon="3.0227703788420337"><ele>468.0</ele><time>2026-04-02T12:46:40Z</time></trkpt><trkpt lat="43.99880715253711" lon="3.0230550378046983"><ele>468.0</ele><time>2026-04-02T12:46:41Z</time></trkpt><trkpt lat="43.998713135506506" lon="3.0233437613659455"><ele>472.66666666666663</ele><time>2026-04-02T12:46:42Z</time></trkpt><trkpt lat="43.998631446451476" lon="3.023636880584123"><ele>477.3333333333333</ele><time>2026-04-02T12:46:43Z</time></trkpt><trkpt lat="43.998561310209666" lon="3.023930188659908"><ele>482.0</ele><time>2026-04-02T12:46:44Z</time></trkpt><trkpt lat="43.998506824896" lon="3.0242324854179286"><ele>486.66666666666663</ele><time>2026-04-02T12:46:45Z</time></trkpt><trkpt lat="43.99846496820707" lon="3.024535956744694"><ele>491.33333333333337</ele><time>2026-04-02T12:46:46Z</time></trkpt><trkpt lat="43.99842855422924" lon="3.024836134067579"><ele>496.0</ele><time>2026-04-02T12:46:47Z</time></trkpt><trkpt lat="43.998398529102786" lon="3.0251304888512474"><ele>498.6666666666667</ele><time>2026-04-02T12:46:48Z</time></trkpt><trkpt lat="43.9983889045663" lon="3.025433886646163"><ele>501.33333333333337</ele><time>2026-04-02T12:46:49Z</time></trkpt><trkpt lat="43.99840776774251" lon="3.0257413826603856"><ele>504.0</ele><time>2026-04-02T12:46:50Z</time></trkpt><trkpt lat="43.998451588208965" lon="3.0260452228494037"><ele>504.5</ele><time>2026-04-02T12:46:51Z</time></trkpt><trkpt lat="43.99850478253923" lon="3.0263547288985713"><ele>505.0</ele><time>2026-04-02T12:46:52Z</time></trkpt><trkpt lat="43.998508797943636" lon="3.0266670454753517"><ele>503.0</ele><time>2026-04-02T12:46:53Z</time></trkpt><trkpt lat="43.99851351564039" lon="3.026981314682182"><ele>501.0</ele><time>2026-04-02T12:46:54Z</time></trkpt><trkpt lat="43.99852829633069" lon="3.027292575492574"><ele>499.66666666666663</ele><time>2026-04-02T12:46:55Z</time></trkpt><trkpt lat="43.998541022981854" lon="3.027596250038532"><ele>498.3333333333333</ele><time>2026-04-02T12:46:56Z</time></trkpt><trkpt lat="43.99859499735015" lon="3.027905283178791"><ele>497.0</ele><time>2026-04-02T12:46:57Z</time></trkpt><trkpt lat="43.998686446050414" lon="3.028211860902279"><ele>494.5</ele><time>2026-04-02T12:46:58Z</time></trkpt><trkpt lat="43.9987334149644" lon="3.028517887464595"><ele>492.0</ele><time>2026-04-02T12:46:59Z</time></trkpt><trkpt lat="43.99875710922745" lon="3.0288475360367597"><ele>491.0</ele><time>2026-04-02T12:47:00Z</time></trkpt><trkpt lat="43.998776678374334" lon="3.0291826675666944"><ele>490.0</ele><time>2026-04-02T12:47:01Z</time></trkpt><trkpt lat="43.99880423328793" lon="3.0295071028032723"><ele>490.0</ele><time>2026-04-02T12:47:02Z</time></trkpt><trkpt lat="43.998785994129065" lon="3.0297954957020123"><ele>490.0</ele><time>2026-04-02T12:47:03Z</time></trkpt><trkpt lat="43.99875822875151" lon="3.030081622572331"><ele>490.0</ele><time>2026-04-02T12:47:04Z</time></trkpt><trkpt lat="43.99871413284373" lon="3.0303865062626008"><ele>490.5</ele><time>2026-04-02T12:47:05Z</time></trkpt><trkpt lat="43.99864710540384" lon="3.0307145829984163"><ele>491.0</ele><time>2026-04-02T12:47:06Z</time></trkpt><trkpt lat="43.998578918463764" lon="3.0310709491236425"><ele>493.0</ele><time>2026-04-02T12:47:07Z</time></trkpt><trkpt lat="43.998536003062675" lon="3.031442612495688"><ele>495.0</ele><time>2026-04-02T12:47:08Z</time></trkpt><trkpt lat="43.99850119636889" lon="3.031818954044242"><ele>499.5</ele><time>2026-04-02T12:47:09Z</time></trkpt><trkpt lat="43.998475449099665" lon="3.032172554052383"><ele>504.0</ele><time>2026-04-02T12:47:10Z</time></trkpt><trkpt lat="43.998418770135146" lon="3.0325093243488195"><ele>507.0</ele><time>2026-04-02T12:47:11Z</time></trkpt><trkpt lat="43.998375852299446" lon="3.0328371822118783"><ele>510.0</ele><time>2026-04-02T12:47:12Z</time></trkpt><trkpt lat="43.99833548458563" lon="3.0331660963699485"><ele>508.0</ele><time>2026-04-02T12:47:13Z</time></trkpt><trkpt lat="43.99840591987386" lon="3.033507687015236"><ele>506.0</ele><time>2026-04-02T12:47:14Z</time></trkpt><trkpt lat="43.99843980354154" lon="3.0338223150689148"><ele>506.0</ele><time>2026-04-02T12:47:15Z</time></trkpt><trkpt lat="43.99849207386781" lon="3.0341199696456282"><ele>506.0</ele><time>2026-04-02T12:47:16Z</time></trkpt><trkpt lat="43.998569759348975" lon="3.034410459907582"><ele>506.0</ele><time>2026-04-02T12:47:17Z</time></trkpt><trkpt lat="43.9986610015429" lon="3.0346936411624306"><ele>501.0</ele><time>2026-04-02T12:47:18Z</time></trkpt><trkpt lat="43.99875523588481" lon="3.0349709294021383"><ele>496.0</ele><time>2026-04-02T12:47:19Z</time></trkpt><trkpt lat="43.99884667731079" lon="3.035249703356438"><ele>491.0</ele><time>2026-04-02T12:47:20Z</time></trkpt><trkpt lat="43.99892676836379" lon="3.0355149042497156"><ele>483.5</ele><time>2026-04-02T12:47:21Z</time></trkpt><trkpt lat="43.9990029673843" lon="3.035813167064361"><ele>476.0</ele><time>2026-04-02T12:47:22Z</time></trkpt><trkpt lat="43.99905435314453" lon="3.036115306692794"><ele>476.0</ele><time>2026-04-02T12:47:23Z</time></trkpt><trkpt lat="43.99910207143761" lon="3.0363993503917084"><ele>476.0</ele><time>2026-04-02T12:47:24Z</time></trkpt><trkpt lat="43.99916002783151" lon="3.036654120517993"><ele>476.0</ele><time>2026-04-02T12:47:25Z</time></trkpt><trkpt lat="43.999222060045035" lon="3.0368787243719075"><ele>486.25</ele><time>2026-04-02T12:47:26Z</time></trkpt><trkpt lat="43.99927570350348" lon="3.0370448282644325"><ele>496.5</ele><time>2026-04-02T12:47:27Z</time></trkpt><trkpt lat="43.99931691186808" lon="3.0371825429036696"><ele>506.75</ele><time>2026-04-02T12:47:28Z</time></trkpt><trkpt lat="43.99936043746607" lon="3.0373085385082033"><ele>517.0</ele><time>2026-04-02T12:47:29Z</time></trkpt><trkpt lat="43.999406598606356" lon="3.037450166929483"><ele>512.75</ele><time>2026-04-02T12:47:30Z</time></trkpt><trkpt lat="43.99945068379491" lon="3.037590956233471"><ele>508.5</ele><time>2026-04-02T12:47:31Z</time></trkpt><trkpt lat="43.99949760824499" lon="3.0377513536570735"><ele>504.25</ele><time>2026-04-02T12:47:32Z</time></trkpt><trkpt lat="43.99955993739234" lon="3.037963556669804"><ele>500.0</ele><time>2026-04-02T12:47:33Z</time></trkpt><trkpt lat="43.99961006830424" lon="3.0382102275994742"><ele>495.0</ele><time>2026-04-02T12:47:34Z</time></trkpt><trkpt lat="43.9996407478512" lon="3.0384853157854232"><ele>490.0</ele><time>2026-04-02T12:47:35Z</time></trkpt><trkpt lat="43.99964644450301" lon="3.038787009140743"><ele>485.0</ele><time>2026-04-02T12:47:36Z</time></trkpt><trkpt lat="43.99962557330717" lon="3.039062949049581"><ele>481.66666666666663</ele><time>2026-04-02T12:47:37Z</time></trkpt><trkpt lat="43.999610318275465" lon="3.0393178092587196"><ele>478.33333333333337</ele><time>2026-04-02T12:47:38Z</time></trkpt><trkpt lat="43.99964489824598" lon="3.03955534242455"><ele>475.0</ele><time>2026-04-02T12:47:39Z</time></trkpt><trkpt lat="43.99974072733015" lon="3.0398175062904844"><ele>469.0</ele><time>2026-04-02T12:47:40Z</time></trkpt><trkpt lat="43.99985741207567" lon="3.040102304262648"><ele>463.0</ele><time>2026-04-02T12:47:41Z</time></trkpt><trkpt lat="43.999963341855306" lon="3.040405082222012"><ele>463.0</ele><time>2026-04-02T12:47:42Z</time></trkpt><trkpt lat="44.00007009447639" lon="3.0407316283537824"><ele>463.0</ele><time>2026-04-02T12:47:43Z</time></trkpt><trkpt lat="44.0001678313674" lon="3.041067973825243"><ele>464.0</ele><time>2026-04-02T12:47:44Z</time></trkpt><trkpt lat="44.00024515257278" lon="3.04142424027788"><ele>465.0</ele><time>2026-04-02T12:47:45Z</time></trkpt><trkpt lat="44.00029534579867" lon="3.0417896709802386"><ele>465.5</ele><time>2026-04-02T12:47:46Z</time></trkpt><trkpt lat="44.000319078505896" lon="3.0421759533250476"><ele>466.0</ele><time>2026-04-02T12:47:47Z</time></trkpt><trkpt lat="44.00031201304547" lon="3.042561739801343"><ele>466.0</ele><time>2026-04-02T12:47:48Z</time></trkpt><trkpt lat="44.00027210377685" lon="3.0429529893719116"><ele>466.0</ele><time>2026-04-02T12:47:49Z</time></trkpt><trkpt lat="44.00022783978787" lon="3.0433458963167093"><ele>467.5</ele><time>2026-04-02T12:47:50Z</time></trkpt><trkpt lat="44.00021114308512" lon="3.043729596818876"><ele>469.0</ele><time>2026-04-02T12:47:51Z</time></trkpt><trkpt lat="44.000207570957215" lon="3.0440916634802364"><ele>469.0</ele><time>2026-04-02T12:47:52Z</time></trkpt><trkpt lat="44.00021412140604" lon="3.0444174385231952"><ele>469.0</ele><time>2026-04-02T12:47:53Z</time></trkpt><trkpt lat="44.000229630157584" lon="3.044714768005293"><ele>469.0</ele><time>2026-04-02T12:47:54Z</time></trkpt><trkpt lat="44.00023688820593" lon="3.0449991237993186"><ele>471.33333333333337</ele><time>2026-04-02T12:47:55Z</time></trkpt><trkpt lat="44.000241862007286" lon="3.0452520076200775"><ele>473.66666666666663</ele><time>2026-04-02T12:47:56Z</time></trkpt><trkpt lat="44.0002589879228" lon="3.0455626314342856"><ele>476.0</ele><time>2026-04-02T12:47:57Z</time></trkpt><trkpt lat="44.000263759682966" lon="3.045889174189957"><ele>476.0</ele><time>2026-04-02T12:47:58Z</time></trkpt><trkpt lat="44.000264385238026" lon="3.046244448013318"><ele>476.0</ele><time>2026-04-02T12:47:59Z</time></trkpt><trkpt lat="44.00024703524652" lon="3.0465935069776675"><ele>477.5</ele><time>2026-04-02T12:48:00Z</time></trkpt><trkpt lat="44.0002173166983" lon="3.0469324460872214"><ele>479.0</ele><time>2026-04-02T12:48:01Z</time></trkpt><trkpt lat="44.00019380063948" lon="3.047233745823015"><ele>482.3333333333333</ele><time>2026-04-02T12:48:02Z</time></trkpt><trkpt lat="44.00017842103179" lon="3.0474892682364514"><ele>485.66666666666663</ele><time>2026-04-02T12:48:03Z</time></trkpt><trkpt lat="44.000165529046654" lon="3.047704057205193"><ele>489.0</ele><time>2026-04-02T12:48:04Z</time></trkpt><trkpt lat="44.000159881943" lon="3.047875984659824"><ele>489.0</ele><time>2026-04-02T12:48:05Z</time></trkpt><trkpt lat="44.00016769220901" lon="3.048061626928656"><ele>489.0</ele><time>2026-04-02T12:48:06Z</time></trkpt><trkpt lat="44.000175596480936" lon="3.0483103759445127"><ele>489.0</ele><time>2026-04-02T12:48:07Z</time></trkpt><trkpt lat="44.00018721655738" lon="3.0488060121031726"><ele>489.6</ele><time>2026-04-02T12:48:09Z</time></trkpt><trkpt lat="44.000186189827346" lon="3.0489683308283717"><ele>490.2</ele><time>2026-04-02T12:48:10Z</time></trkpt><trkpt lat="44.00021725244269" lon="3.0490601923922998"><ele>490.80000000000007</ele><time>2026-04-02T12:48:12Z</time></trkpt><trkpt lat="44.00027973983029" lon="3.0489790865184543"><ele>491.40000000000003</ele><time>2026-04-02T12:48:14Z</time></trkpt><trkpt lat="44.00029098378674" lon="3.0488683653433792"><ele>492.0</ele><time>2026-04-02T12:48:15Z</time></trkpt><trkpt lat="44.00028989632043" lon="3.0486801705809414"><ele>492.0</ele><time>2026-04-02T12:48:16Z</time></trkpt><trkpt lat="44.000295206627655" lon="3.0484532340573214"><ele>492.0</ele><time>2026-04-02T12:48:17Z</time></trkpt><trkpt lat="44.00031577875344" lon="3.0482527494685088"><ele>492.0</ele><time>2026-04-02T12:48:18Z</time></trkpt><trkpt lat="44.00039996480789" lon="3.0480546200210465"><ele>491.0</ele><time>2026-04-02T12:48:19Z</time></trkpt><trkpt lat="44.0004719857453" lon="3.0478228076781257"><ele>490.0</ele><time>2026-04-02T12:48:20Z</time></trkpt><trkpt lat="44.000542852783965" lon="3.0475675532165543"><ele>489.0</ele><time>2026-04-02T12:48:21Z</time></trkpt><trkpt lat="44.00063155607818" lon="3.047334896712616"><ele>485.66666666666663</ele><time>2026-04-02T12:48:22Z</time></trkpt><trkpt lat="44.000709722944684" lon="3.0471341445619267"><ele>482.3333333333333</ele><time>2026-04-02T12:48:23Z</time></trkpt><trkpt lat="44.000779230782186" lon="3.046948561963593"><ele>479.0</ele><time>2026-04-02T12:48:24Z</time></trkpt><trkpt lat="44.00083083464725" lon="3.0467339643548135"><ele>494.0</ele><time>2026-04-02T12:48:25Z</time></trkpt><trkpt lat="44.00087376742409" lon="3.046501842449572"><ele>509.0</ele><time>2026-04-02T12:48:26Z</time></trkpt><trkpt lat="44.00091792213755" lon="3.046264959543142"><ele>524.0</ele><time>2026-04-02T12:48:27Z</time></trkpt><trkpt lat="44.000956981169" lon="3.0460035928680242"><ele>522.75</ele><time>2026-04-02T12:48:28Z</time></trkpt><trkpt lat="44.00099815335089" lon="3.0457689361057665"><ele>521.5</ele><time>2026-04-02T12:48:29Z</time></trkpt><trkpt lat="44.0010254707582" lon="3.045576160196624"><ele>520.25</ele><time>2026-04-02T12:48:30Z</time></trkpt><trkpt lat="44.001035172376376" lon="3.0454014095155233"><ele>519.0</ele><time>2026-04-02T12:48:31Z</time></trkpt><trkpt lat="44.00102214623968" lon="3.045224376584187"><ele>519.0</ele><time>2026-04-02T12:48:32Z</time></trkpt><trkpt lat="44.00100644397533" lon="3.0450580551620816"><ele>519.0</ele><time>2026-04-02T12:48:33Z</time></trkpt><trkpt lat="44.001016081675665" lon="3.044925686750584"><ele>519.0</ele><time>2026-04-02T12:48:34Z</time></trkpt><trkpt lat="44.00102357616246" lon="3.0448149499952173"><ele>519.0</ele><time>2026-04-02T12:48:35Z</time></trkpt><trkpt lat="44.00102584227051" lon="3.044683813195437"><ele>519.0</ele><time>2026-04-02T12:48:36Z</time></trkpt><trkpt lat="44.00105111921342" lon="3.0445570853928867"><ele>519.0</ele><time>2026-04-02T12:48:37Z</time></trkpt><trkpt lat="44.00106804887189" lon="3.044420551696078"><ele>519.0</ele><time>2026-04-02T12:48:38Z</time></trkpt><trkpt lat="44.00108288706697" lon="3.044271565338568"><ele>519.0</ele><time>2026-04-02T12:48:39Z</time></trkpt><trkpt lat="44.00110049103929" lon="3.0441358570568897"><ele>519.0</ele><time>2026-04-02T12:48:40Z</time></trkpt><trkpt lat="44.00111938932952" lon="3.0439986977175306"><ele>519.0</ele><time>2026-04-02T12:48:41Z</time></trkpt><trkpt lat="44.00115477580543" lon="3.0438282927462037"><ele>518.6</ele><time>2026-04-02T12:48:42Z</time></trkpt><trkpt lat="44.00120160493588" lon="3.043654921478701"><ele>518.2</ele><time>2026-04-02T12:48:43Z</time></trkpt><trkpt lat="44.00124608684381" lon="3.043513400169385"><ele>517.8000000000001</ele><time>2026-04-02T12:48:44Z</time></trkpt><trkpt lat="44.00127464893738" lon="3.043408221019022"><ele>517.4</ele><time>2026-04-02T12:48:45Z</time></trkpt><trkpt lat="44.001298665625015" lon="3.0433244122144467"><ele>517.0</ele><time>2026-04-02T12:48:46Z</time></trkpt><trkpt lat="44.00136342617884" lon="3.043253623606872"><ele>517.0</ele><time>2026-04-02T12:48:48Z</time></trkpt><trkpt lat="44.00144046585158" lon="3.043277582309558"><ele>517.0</ele><time>2026-04-02T12:48:50Z</time></trkpt><trkpt lat="44.00150839140219" lon="3.0434073610889096"><ele>517.0</ele><time>2026-04-02T12:48:52Z</time></trkpt><trkpt lat="44.0015681017127" lon="3.0434818706125726"><ele>517.0</ele><time>2026-04-02T12:48:53Z</time></trkpt><trkpt lat="44.00163469792323" lon="3.0436012884064945"><ele>517.0</ele><time>2026-04-02T12:48:55Z</time></trkpt><trkpt lat="44.001682507982096" lon="3.0437398974487975"><ele>517.2857142857143</ele><time>2026-04-02T12:48:57Z</time></trkpt><trkpt lat="44.00171216662041" lon="3.043830781244951"><ele>517.5714285714287</ele><time>2026-04-02T12:48:58Z</time></trkpt><trkpt lat="44.00173600265015" lon="3.0439175100391074"><ele>517.8571428571429</ele><time>2026-04-02T12:48:59Z</time></trkpt><trkpt lat="44.00172005160884" lon="3.0440071661967205"><ele>518.1428571428571</ele><time>2026-04-02T12:49:00Z</time></trkpt><trkpt lat="44.001699768822924" lon="3.0441022238077964"><ele>518.4285714285713</ele><time>2026-04-02T12:49:01Z</time></trkpt><trkpt lat="44.00168166367571" lon="3.044214820100644"><ele>518.7142857142857</ele><time>2026-04-02T12:49:02Z</time></trkpt><trkpt lat="44.001663427737526" lon="3.0443231382946516"><ele>519.0</ele><time>2026-04-02T12:49:03Z</time></trkpt><trkpt lat="44.00164254779512" lon="3.0444376371080613"><ele>519.0</ele><time>2026-04-02T12:49:04Z</time></trkpt><trkpt lat="44.00161491118273" lon="3.0445785661146108"><ele>519.0</ele><time>2026-04-02T12:49:05Z</time></trkpt><trkpt lat="44.001605991830935" lon="3.044720521106999"><ele>519.0</ele><time>2026-04-02T12:49:06Z</time></trkpt><trkpt lat="44.00156718838072" lon="3.0448488596319083"><ele>519.0</ele><time>2026-04-02T12:49:07Z</time></trkpt><trkpt lat="44.001549984902084" lon="3.044951688549655"><ele>519.0</ele><time>2026-04-02T12:49:08Z</time></trkpt><trkpt lat="44.00153425443741" lon="3.045036758788925"><ele>519.0</ele><time>2026-04-02T12:49:09Z</time></trkpt><trkpt lat="44.001509730579976" lon="3.045162812157711"><ele>519.0</ele><time>2026-04-02T12:49:11Z</time></trkpt><trkpt lat="44.00143438510536" lon="3.045160126447501"><ele>519.0</ele><time>2026-04-02T12:49:14Z</time></trkpt><trkpt lat="44.001460059406" lon="3.045053822639863"><ele>519.0</ele><time>2026-04-02T12:49:21Z</time></trkpt><trkpt lat="44.001460425345584" lon="3.0449333983831934"><ele>519.0</ele><time>2026-04-02T12:49:32Z</time></trkpt><trkpt lat="44.001462662758136" lon="3.044784142334629"><ele>519.0</ele><time>2026-04-02T12:49:34Z</time></trkpt><trkpt lat="44.001453568681335" lon="3.044617974851346"><ele>519.0</ele><time>2026-04-02T12:49:36Z</time></trkpt><trkpt lat="44.0014407069547" lon="3.044477652205107"><ele>519.0</ele><time>2026-04-02T12:49:38Z</time></trkpt><trkpt lat="44.001453890463054" lon="3.044362456434943"><ele>519.0</ele><time>2026-04-02T12:49:40Z</time></trkpt><trkpt lat="44.00142873524246" lon="3.044271882279506"><ele>519.0</ele><time>2026-04-02T12:49:43Z</time></trkpt><trkpt lat="44.001425177823116" lon="3.044375447946863"><ele>519.0</ele><time>2026-04-02T12:49:49Z</time></trkpt><trkpt lat="44.001533773742686" lon="3.0445481889480313"><ele>519.0</ele><time>2026-04-02T12:49:51Z</time></trkpt><trkpt lat="44.001550469332635" lon="3.0446854863439334"><ele>519.0</ele><time>2026-04-02T12:49:53Z</time></trkpt><trkpt lat="44.00158761025881" lon="3.044845125121942"><ele>519.0</ele><time>2026-04-02T12:49:55Z</time></trkpt><trkpt lat="44.00161349174738" lon="3.044955387767269"><ele>519.0</ele><time>2026-04-02T12:49:56Z</time></trkpt><trkpt lat="44.00149401073243" lon="3.0450550119377193"><ele>519.0</ele><time>2026-04-02T12:49:57Z</time></trkpt><trkpt lat="44.00143174515248" lon="3.0450698940649743"><ele>519.0</ele><time>2026-04-02T12:50:00Z</time></trkpt><trkpt lat="44.00141461159902" lon="3.0451654848762613"><ele>519.0</ele><time>2026-04-02T12:51:01Z</time></trkpt><trkpt lat="44.00141702394625" lon="3.0452619629943682"><ele>519.0</ele><time>2026-04-02T12:51:02Z</time></trkpt><trkpt lat="44.001426288784934" lon="3.045380662263965"><ele>519.0</ele><time>2026-04-02T12:51:04Z</time></trkpt><trkpt lat="44.00144349285552" lon="3.045473497585821"><ele>519.0</ele><time>2026-04-02T12:51:06Z</time></trkpt><trkpt lat="44.00144885185551" lon="3.045586639828168"><ele>519.0</ele><time>2026-04-02T12:51:08Z</time></trkpt><trkpt lat="44.0014525564896" lon="3.0457113129022337"><ele>519.8333333333334</ele><time>2026-04-02T12:51:10Z</time></trkpt><trkpt lat="44.00146342710316" lon="3.045819520700532"><ele>520.6666666666666</ele><time>2026-04-02T12:51:12Z</time></trkpt><trkpt lat="44.00147014699255" lon="3.045906643003591"><ele>521.5</ele><time>2026-04-02T12:51:14Z</time></trkpt><trkpt lat="44.00148958961718" lon="3.0460292148128425"><ele>522.3333333333333</ele><time>2026-04-02T12:51:17Z</time></trkpt><trkpt lat="44.00150953399446" lon="3.0461274632515525"><ele>523.1666666666666</ele><time>2026-04-02T12:51:19Z</time></trkpt><trkpt lat="44.00155478129667" lon="3.046220542745537"><ele>524.0</ele><time>2026-04-02T12:51:21Z</time></trkpt><trkpt lat="44.00156113471524" lon="3.0463282580599356"><ele>524.0</ele><time>2026-04-02T12:51:23Z</time></trkpt><trkpt lat="44.00156250202435" lon="3.0464177724147175"><ele>524.0</ele><time>2026-04-02T12:51:25Z</time></trkpt><trkpt lat="44.00155833502901" lon="3.0465160497695467"><ele>524.0</ele><time>2026-04-02T12:51:27Z</time></trkpt><trkpt lat="44.00157836819981" lon="3.0466147688438325"><ele>524.0</ele><time>2026-04-02T12:51:29Z</time></trkpt><trkpt lat="44.00159251103566" lon="3.046764561823379"><ele>524.0</ele><time>2026-04-02T12:51:32Z</time></trkpt><trkpt lat="44.00159748618757" lon="3.0468818166614837"><ele>524.0</ele><time>2026-04-02T12:51:34Z</time></trkpt><trkpt lat="44.0016075601477" lon="3.047010873682942"><ele>524.8571428571429</ele><time>2026-04-02T12:51:36Z</time></trkpt><trkpt lat="44.00160615432486" lon="3.0471392046615313"><ele>525.7142857142858</ele><time>2026-04-02T12:51:38Z</time></trkpt><trkpt lat="44.00157648240202" lon="3.047235682607958"><ele>526.5714285714286</ele><time>2026-04-02T12:51:40Z</time></trkpt><trkpt lat="44.00154659398984" lon="3.04733496845718"><ele>527.4285714285714</ele><time>2026-04-02T12:51:42Z</time></trkpt><trkpt lat="44.00153126149537" lon="3.047421595529369"><ele>528.2857142857142</ele><time>2026-04-02T12:51:44Z</time></trkpt><trkpt lat="44.00153772832442" lon="3.047524162881344"><ele>529.1428571428571</ele><time>2026-04-02T12:51:46Z</time></trkpt><trkpt lat="44.001534918972986" lon="3.0476136049748903"><ele>530.0</ele><time>2026-04-02T12:51:49Z</time></trkpt><trkpt lat="44.001536044301076" lon="3.047511278032545"><ele>529.9999999999999</ele><time>2026-04-02T12:52:19Z</time></trkpt><trkpt lat="44.001545404265315" lon="3.0474078364176007"><ele>530.0</ele><time>2026-04-02T12:52:26Z</time></trkpt><trkpt lat="44.00161529149543" lon="3.0473490801482663"><ele>530.0</ele><time>2026-04-02T12:52:35Z</time></trkpt><trkpt lat="44.00156805347038" lon="3.047418367247085"><ele>530.0</ele><time>2026-04-02T12:53:13Z</time></trkpt><trkpt lat="44.001547512097616" lon="3.047514264683344"><ele>530.0</ele><time>2026-04-02T12:53:19Z</time></trkpt><trkpt lat="44.00155142773097" lon="3.0476027778937733"><ele>529.9999999999999</ele><time>2026-04-02T12:53:26Z</time></trkpt><trkpt lat="44.00157675746175" lon="3.0474884831978417"><ele>530.0</ele><time>2026-04-02T12:58:26Z</time></trkpt><trkpt lat="44.00156255241089" lon="3.0473669062299047"><ele>530.0</ele><time>2026-04-02T12:58:28Z</time></trkpt><trkpt lat="44.00158021003442" lon="3.0472639762006883"><ele>530.0</ele><time>2026-04-02T12:58:32Z</time></trkpt><trkpt lat="44.00161269480398" lon="3.047174859629954"><ele>530.0</ele><time>2026-04-02T12:58:36Z</time></trkpt><trkpt lat="44.0016214294362" lon="3.0470595993118628"><ele>530.0</ele><time>2026-04-02T12:58:39Z</time></trkpt><trkpt lat="44.00161703668389" lon="3.046962179761268"><ele>530.0</ele><time>2026-04-02T12:58:41Z</time></trkpt><trkpt lat="44.001601824078605" lon="3.046861802444927"><ele>530.0</ele><time>2026-04-02T12:58:43Z</time></trkpt><trkpt lat="44.0015908834296" lon="3.046724533377821"><ele>528.8</ele><time>2026-04-02T12:58:46Z</time></trkpt><trkpt lat="44.00156917219302" lon="3.046609328130236"><ele>527.6</ele><time>2026-04-02T12:58:48Z</time></trkpt><trkpt lat="44.001555004735145" lon="3.0464295113160658"><ele>526.4</ele><time>2026-04-02T12:58:50Z</time></trkpt><trkpt lat="44.00154228541639" lon="3.0462777227777016"><ele>525.2</ele><time>2026-04-02T12:58:52Z</time></trkpt><trkpt lat="44.00154984725974" lon="3.0461565399020603"><ele>524.0</ele><time>2026-04-02T12:58:54Z</time></trkpt><trkpt lat="44.00150573891179" lon="3.0460448104930746"><ele>524.0</ele><time>2026-04-02T12:58:56Z</time></trkpt><trkpt lat="44.001483032864286" lon="3.0459427357471545"><ele>524.0</ele><time>2026-04-02T12:58:58Z</time></trkpt><trkpt lat="44.001484434117295" lon="3.0458092491601936"><ele>524.0</ele><time>2026-04-02T12:59:01Z</time></trkpt><trkpt lat="44.001471789321606" lon="3.0457134038566824"><ele>524.0</ele><time>2026-04-02T12:59:03Z</time></trkpt><trkpt lat="44.001464908468776" lon="3.045618615337286"><ele>524.0</ele><time>2026-04-02T12:59:05Z</time></trkpt><trkpt lat="44.00146225446491" lon="3.0454612022713325"><ele>524.0</ele><time>2026-04-02T12:59:07Z</time></trkpt><trkpt lat="44.001453518292074" lon="3.045355357189813"><ele>523.0</ele><time>2026-04-02T12:59:09Z</time></trkpt><trkpt lat="44.001485319462596" lon="3.0452557862539975"><ele>522.0</ele><time>2026-04-02T12:59:12Z</time></trkpt><trkpt lat="44.00154767247321" lon="3.045184099559239"><ele>521.0</ele><time>2026-04-02T12:59:14Z</time></trkpt><trkpt lat="44.00146409672481" lon="3.045097294183499"><ele>520.0</ele><time>2026-04-02T12:59:15Z</time></trkpt><trkpt lat="44.00158834006434" lon="3.0450032864437766"><ele>519.0</ele><time>2026-04-02T12:59:16Z</time></trkpt><trkpt lat="44.00160102724545" lon="3.0448368744048033"><ele>519.0</ele><time>2026-04-02T12:59:17Z</time></trkpt><trkpt lat="44.00162499517153" lon="3.0446405624872708"><ele>519.0</ele><time>2026-04-02T12:59:18Z</time></trkpt><trkpt lat="44.00166504114552" lon="3.044434241824363"><ele>519.0</ele><time>2026-04-02T12:59:19Z</time></trkpt><trkpt lat="44.00169928952718" lon="3.044263870146654"><ele>519.0</ele><time>2026-04-02T12:59:20Z</time></trkpt><trkpt lat="44.001728694130556" lon="3.044110853025931"><ele>518.6666666666666</ele><time>2026-04-02T12:59:21Z</time></trkpt><trkpt lat="44.00175131588946" lon="3.0439800970007878"><ele>518.3333333333334</ele><time>2026-04-02T12:59:22Z</time></trkpt><trkpt lat="44.00176128770115" lon="3.0438699514446355"><ele>518.0</ele><time>2026-04-02T12:59:23Z</time></trkpt><trkpt lat="44.001746391742486" lon="3.0437705766386287"><ele>517.6666666666667</ele><time>2026-04-02T12:59:24Z</time></trkpt><trkpt lat="44.00170561614356" lon="3.043680482648714"><ele>517.3333333333334</ele><time>2026-04-02T12:59:25Z</time></trkpt><trkpt lat="44.00164845349393" lon="3.0435889833733407"><ele>517.0</ele><time>2026-04-02T12:59:26Z</time></trkpt><trkpt lat="44.00158245160859" lon="3.0434807398112493"><ele>517.0</ele><time>2026-04-02T12:59:27Z</time></trkpt><trkpt lat="44.00152678251745" lon="3.043394378683539"><ele>517.0</ele><time>2026-04-02T12:59:28Z</time></trkpt><trkpt lat="44.00148118929403" lon="3.043330458919489"><ele>517.0</ele><time>2026-04-02T12:59:29Z</time></trkpt><trkpt lat="44.0014082047677" lon="3.04321166920124"><ele>517.0</ele><time>2026-04-02T12:59:31Z</time></trkpt><trkpt lat="44.001341323554634" lon="3.04322558881921"><ele>517.0</ele><time>2026-04-02T12:59:32Z</time></trkpt><trkpt lat="44.001242388710295" lon="3.043358147240968"><ele>517.0</ele><time>2026-04-02T12:59:34Z</time></trkpt><trkpt lat="44.0012051500013" lon="3.0435015580945386"><ele>517.0</ele><time>2026-04-02T12:59:35Z</time></trkpt><trkpt lat="44.0011762787331" lon="3.043676782174584"><ele>517.0</ele><time>2026-04-02T12:59:36Z</time></trkpt><trkpt lat="44.001116824991406" lon="3.0438729994643943"><ele>517.0</ele><time>2026-04-02T12:59:37Z</time></trkpt><trkpt lat="44.001084118786714" lon="3.0440722456362908"><ele>517.6666666666667</ele><time>2026-04-02T12:59:38Z</time></trkpt><trkpt lat="44.001047960889416" lon="3.044290110020021"><ele>518.3333333333334</ele><time>2026-04-02T12:59:39Z</time></trkpt><trkpt lat="44.00103075337919" lon="3.0445309831959992"><ele>519.0</ele><time>2026-04-02T12:59:40Z</time></trkpt><trkpt lat="44.00100851931195" lon="3.044748834879149"><ele>519.0</ele><time>2026-04-02T12:59:41Z</time></trkpt><trkpt lat="44.00097844667524" lon="3.0449486751562196"><ele>519.0</ele><time>2026-04-02T12:59:42Z</time></trkpt><trkpt lat="44.00096412025955" lon="3.0451245146387405"><ele>519.0</ele><time>2026-04-02T12:59:43Z</time></trkpt><trkpt lat="44.000983347592005" lon="3.0453138470889245"><ele>519.0</ele><time>2026-04-02T12:59:44Z</time></trkpt><trkpt lat="44.00099848400875" lon="3.0455061049273278"><ele>519.0</ele><time>2026-04-02T12:59:45Z</time></trkpt><trkpt lat="44.0009653885573" lon="3.0456892066472263"><ele>519.0</ele><time>2026-04-02T12:59:46Z</time></trkpt><trkpt lat="44.00094587047176" lon="3.045870821176299"><ele>519.0</ele><time>2026-04-02T12:59:47Z</time></trkpt><trkpt lat="44.00092413845701" lon="3.0460638389252024"><ele>519.0</ele><time>2026-04-02T12:59:48Z</time></trkpt><trkpt lat="44.000902848987316" lon="3.0462824925348673"><ele>520.25</ele><time>2026-04-02T12:59:49Z</time></trkpt><trkpt lat="44.000869796375845" lon="3.046482664756619"><ele>521.5</ele><time>2026-04-02T12:59:50Z</time></trkpt><trkpt lat="44.000811121291036" lon="3.0466551334083407"><ele>522.75</ele><time>2026-04-02T12:59:51Z</time></trkpt><trkpt lat="44.000787403167415" lon="3.046842584942559"><ele>524.0</ele><time>2026-04-02T12:59:52Z</time></trkpt><trkpt lat="44.000729073037284" lon="3.0470109138472607"><ele>515.25</ele><time>2026-04-02T12:59:53Z</time></trkpt><trkpt lat="44.00067604251912" lon="3.047165956784974"><ele>506.5</ele><time>2026-04-02T12:59:54Z</time></trkpt><trkpt lat="44.00061063344248" lon="3.0473158309010273"><ele>497.75</ele><time>2026-04-02T12:59:55Z</time></trkpt><trkpt lat="44.000548669531746" lon="3.047470538771573"><ele>489.0</ele><time>2026-04-02T12:59:56Z</time></trkpt><trkpt lat="44.0005059688619" lon="3.04764010101097"><ele>489.0</ele><time>2026-04-02T12:59:57Z</time></trkpt><trkpt lat="44.00044957319904" lon="3.047793908782311"><ele>489.0</ele><time>2026-04-02T12:59:58Z</time></trkpt><trkpt lat="44.000400904618296" lon="3.047944104661993"><ele>489.0</ele><time>2026-04-02T12:59:59Z</time></trkpt><trkpt lat="44.000358457673805" lon="3.0480983951061567"><ele>489.0</ele><time>2026-04-02T13:00:00Z</time></trkpt><trkpt lat="44.00032340756434" lon="3.0482551483420575"><ele>489.6</ele><time>2026-04-02T13:00:01Z</time></trkpt><trkpt lat="44.00029077095469" lon="3.048415745133391"><ele>490.2</ele><time>2026-04-02T13:00:02Z</time></trkpt><trkpt lat="44.000266426396905" lon="3.0485692247132206"><ele>490.80000000000007</ele><time>2026-04-02T13:00:03Z</time></trkpt><trkpt lat="44.000255998653515" lon="3.04871784320482"><ele>491.40000000000003</ele><time>2026-04-02T13:00:04Z</time></trkpt><trkpt lat="44.00024709188203" lon="3.048857133033536"><ele>492.0</ele><time>2026-04-02T13:00:05Z</time></trkpt><trkpt lat="44.00024013625199" lon="3.0489674658842016"><ele>492.0</ele><time>2026-04-02T13:00:06Z</time></trkpt><trkpt lat="44.00016696900643" lon="3.048951520373069"><ele>492.00000000000006</ele><time>2026-04-02T13:00:09Z</time></trkpt><trkpt lat="44.00019483322827" lon="3.0488472062117085"><ele>492.00000000000006</ele><time>2026-04-02T13:00:10Z</time></trkpt><trkpt lat="44.00019706200938" lon="3.0487182501093493"><ele>492.0</ele><time>2026-04-02T13:00:11Z</time></trkpt><trkpt lat="44.000194528089324" lon="3.048562607778062"><ele>492.0</ele><time>2026-04-02T13:00:12Z</time></trkpt><trkpt lat="44.000176949627644" lon="3.0483979774676015"><ele>492.0</ele><time>2026-04-02T13:00:13Z</time></trkpt><trkpt lat="44.00019229893745" lon="3.048239937008321"><ele>492.00000000000006</ele><time>2026-04-02T13:00:14Z</time></trkpt><trkpt lat="44.000190454564994" lon="3.04810350794712"><ele>492.00000000000006</ele><time>2026-04-02T13:00:15Z</time></trkpt><trkpt lat="44.000177913562865" lon="3.0479963137513595"><ele>492.0</ele><time>2026-04-02T13:00:16Z</time></trkpt><trkpt lat="44.0001036890298" lon="3.048138924652593"><ele>492.0</ele><time>2026-04-02T13:00:21Z</time></trkpt><trkpt lat="44.000083058731626" lon="3.0483400070610944"><ele>492.0</ele><time>2026-04-02T13:00:22Z</time></trkpt><trkpt lat="44.00004609573827" lon="3.048554602003679"><ele>492.0</ele><time>2026-04-02T13:00:23Z</time></trkpt><trkpt lat="43.999980617313895" lon="3.048723663983561"><ele>492.0</ele><time>2026-04-02T13:00:24Z</time></trkpt><trkpt lat="43.99995096915648" lon="3.0488612320997244"><ele>492.0</ele><time>2026-04-02T13:00:25Z</time></trkpt><trkpt lat="43.99993955377982" lon="3.0490003441050324"><ele>492.0</ele><time>2026-04-02T13:00:26Z</time></trkpt><trkpt lat="43.99994609157189" lon="3.049122770412597"><ele>492.0</ele><time>2026-04-02T13:00:27Z</time></trkpt><trkpt lat="43.999962630163395" lon="3.049241124241561"><ele>492.0</ele><time>2026-04-02T13:00:28Z</time></trkpt><trkpt lat="43.99998218279452" lon="3.0493680839018396"><ele>492.0</ele><time>2026-04-02T13:00:29Z</time></trkpt><trkpt lat="43.99998519522864" lon="3.0494803105027817"><ele>492.0</ele><time>2026-04-02T13:00:30Z</time></trkpt><trkpt lat="43.99993249681285" lon="3.0495724430688385"><ele>492.0</ele><time>2026-04-02T13:00:31Z</time></trkpt><trkpt lat="43.999871002239864" lon="3.0496421387078647"><ele>492.3333333333333</ele><time>2026-04-02T13:00:32Z</time></trkpt><trkpt lat="43.99981336261224" lon="3.049720046962021"><ele>492.66666666666663</ele><time>2026-04-02T13:00:33Z</time></trkpt><trkpt lat="43.99975968490904" lon="3.049801220270528"><ele>493.0</ele><time>2026-04-02T13:00:34Z</time></trkpt><trkpt lat="43.999728788010046" lon="3.049909697688937"><ele>493.3333333333333</ele><time>2026-04-02T13:00:35Z</time></trkpt><trkpt lat="43.9996903322946" lon="3.0500068085567587"><ele>493.66666666666663</ele><time>2026-04-02T13:00:36Z</time></trkpt><trkpt lat="43.99963659201706" lon="3.0500618870745697"><ele>494.0</ele><time>2026-04-02T13:00:37Z</time></trkpt><trkpt lat="43.99955010510269" lon="3.050119570005188"><ele>496.5</ele><time>2026-04-02T13:00:40Z</time></trkpt><trkpt lat="43.99950909132514" lon="3.0502151762621215"><ele>499.0</ele><time>2026-04-02T13:00:41Z</time></trkpt><trkpt lat="43.999444893429256" lon="3.050376068099862"><ele>501.5</ele><time>2026-04-02T13:00:42Z</time></trkpt><trkpt lat="43.99936195812446" lon="3.050544788205969"><ele>504.0</ele><time>2026-04-02T13:00:43Z</time></trkpt><trkpt lat="43.99927080401565" lon="3.0507438750570937"><ele>511.66666666666663</ele><time>2026-04-02T13:00:44Z</time></trkpt><trkpt lat="43.99917127952121" lon="3.0509888343136473"><ele>519.3333333333333</ele><time>2026-04-02T13:00:45Z</time></trkpt><trkpt lat="43.999070702027986" lon="3.051251434929825"><ele>527.0</ele><time>2026-04-02T13:00:46Z</time></trkpt><trkpt lat="43.99896918210491" lon="3.0515313098145507"><ele>515.3333333333333</ele><time>2026-04-02T13:00:47Z</time></trkpt><trkpt lat="43.99887521286978" lon="3.0517932958345337"><ele>503.66666666666663</ele><time>2026-04-02T13:00:48Z</time></trkpt><trkpt lat="43.998796856217226" lon="3.05201761141342"><ele>492.0</ele><time>2026-04-02T13:00:49Z</time></trkpt><trkpt lat="43.99872388035273" lon="3.0522209158402185"><ele>492.0</ele><time>2026-04-02T13:00:50Z</time></trkpt><trkpt lat="43.9986693805037" lon="3.052385377265996"><ele>492.0</ele><time>2026-04-02T13:00:51Z</time></trkpt><trkpt lat="43.99864328348576" lon="3.0525488246103003"><ele>492.0</ele><time>2026-04-02T13:00:52Z</time></trkpt><trkpt lat="43.99865811491697" lon="3.0527116301350907"><ele>492.0</ele><time>2026-04-02T13:00:53Z</time></trkpt><trkpt lat="43.99869340467063" lon="3.0528526244463317"><ele>494.20000000000005</ele><time>2026-04-02T13:00:54Z</time></trkpt><trkpt lat="43.998733077945765" lon="3.0529665174663725"><ele>496.40000000000003</ele><time>2026-04-02T13:00:55Z</time></trkpt><trkpt lat="43.998763957580834" lon="3.053046835842987"><ele>498.59999999999997</ele><time>2026-04-02T13:00:56Z</time></trkpt><trkpt lat="43.998778714650804" lon="3.053149024443105"><ele>500.79999999999995</ele><time>2026-04-02T13:02:14Z</time></trkpt><trkpt lat="43.99882674362951" lon="3.053281635942387"><ele>503.0</ele><time>2026-04-02T13:02:15Z</time></trkpt><trkpt lat="43.99886530779202" lon="3.053429972174579"><ele>503.5</ele><time>2026-04-02T13:02:16Z</time></trkpt><trkpt lat="43.998895662147746" lon="3.053607849054518"><ele>504.0</ele><time>2026-04-02T13:02:17Z</time></trkpt><trkpt lat="43.99892415201544" lon="3.0537994233720727"><ele>504.5</ele><time>2026-04-02T13:02:18Z</time></trkpt><trkpt lat="43.99891799030481" lon="3.0539501574397296"><ele>505.0</ele><time>2026-04-02T13:02:19Z</time></trkpt><trkpt lat="43.998921384073284" lon="3.0541854012708334"><ele>505.0</ele><time>2026-04-02T13:02:20Z</time></trkpt><trkpt lat="43.99888155557798" lon="3.054454568317871"><ele>505.0</ele><time>2026-04-02T13:02:21Z</time></trkpt><trkpt lat="43.998865388832556" lon="3.054707630114054"><ele>505.0</ele><time>2026-04-02T13:02:22Z</time></trkpt><trkpt lat="43.998831850595565" lon="3.05495630467321"><ele>506.6666666666667</ele><time>2026-04-02T13:02:23Z</time></trkpt><trkpt lat="43.99877217573685" lon="3.055199556923144"><ele>508.33333333333337</ele><time>2026-04-02T13:02:24Z</time></trkpt><trkpt lat="43.99870965400211" lon="3.0554464616747565"><ele>510.0</ele><time>2026-04-02T13:02:25Z</time></trkpt><trkpt lat="43.9986163582725" lon="3.0557179282253144"><ele>514.0</ele><time>2026-04-02T13:02:26Z</time></trkpt><trkpt lat="43.99851295597034" lon="3.055989989751455"><ele>518.0</ele><time>2026-04-02T13:02:27Z</time></trkpt><trkpt lat="43.998406690993484" lon="3.0562601908282296"><ele>522.0</ele><time>2026-04-02T13:02:28Z</time></trkpt><trkpt lat="43.998300790845356" lon="3.0565571069033157"><ele>512.6666666666666</ele><time>2026-04-02T13:02:29Z</time></trkpt><trkpt lat="43.998191830061444" lon="3.056827819908755"><ele>503.3333333333333</ele><time>2026-04-02T13:02:30Z</time></trkpt><trkpt lat="43.998078699571366" lon="3.0570892144778634"><ele>494.0</ele><time>2026-04-02T13:02:31Z</time></trkpt><trkpt lat="43.997940332072595" lon="3.0573307350710692"><ele>490.0</ele><time>2026-04-02T13:02:32Z</time></trkpt><trkpt lat="43.99780699116961" lon="3.0575719240795163"><ele>486.0</ele><time>2026-04-02T13:02:33Z</time></trkpt><trkpt lat="43.997653739856716" lon="3.057775017485449"><ele>482.0</ele><time>2026-04-02T13:02:34Z</time></trkpt><trkpt lat="43.99749181581694" lon="3.057935473517273"><ele>482.0</ele><time>2026-04-02T13:02:35Z</time></trkpt><trkpt lat="43.99733457243895" lon="3.05803198714433"><ele>482.0</ele><time>2026-04-02T13:02:36Z</time></trkpt><trkpt lat="43.99715276359319" lon="3.0581137500798357"><ele>482.0</ele><time>2026-04-02T13:02:37Z</time></trkpt><trkpt lat="43.996976750948924" lon="3.05817717977298"><ele>482.0</ele><time>2026-04-02T13:02:38Z</time></trkpt><trkpt lat="43.99686013688912" lon="3.0582297769711473"><ele>482.0</ele><time>2026-04-02T13:02:39Z</time></trkpt><trkpt lat="43.996769088322424" lon="3.0583973391439727"><ele>482.0</ele><time>2026-04-02T13:02:40Z</time></trkpt><trkpt lat="43.996703436691455" lon="3.0585696435658343"><ele>482.0</ele><time>2026-04-02T13:02:41Z</time></trkpt><trkpt lat="43.996693809462364" lon="3.0587294358183605"><ele>490.0</ele><time>2026-04-02T13:02:42Z</time></trkpt><trkpt lat="43.9966957587564" lon="3.0590223969236687"><ele>498.0</ele><time>2026-04-02T13:02:43Z</time></trkpt><trkpt lat="43.99673226543034" lon="3.0593363366799613"><ele>506.0</ele><time>2026-04-02T13:02:44Z</time></trkpt><trkpt lat="43.996778348245606" lon="3.059649410115179"><ele>510.3333333333333</ele><time>2026-04-02T13:02:45Z</time></trkpt><trkpt lat="43.996849714186524" lon="3.059952798168701"><ele>514.6666666666666</ele><time>2026-04-02T13:02:46Z</time></trkpt><trkpt lat="43.99693811347791" lon="3.0602084286284543"><ele>519.0</ele><time>2026-04-02T13:02:47Z</time></trkpt><trkpt lat="43.99704371714726" lon="3.0604223882261548"><ele>519.0</ele><time>2026-04-02T13:02:48Z</time></trkpt><trkpt lat="43.99718025652287" lon="3.060603441371047"><ele>519.0</ele><time>2026-04-02T13:02:49Z</time></trkpt><trkpt lat="43.99734315490078" lon="3.0607710061328133"><ele>519.0</ele><time>2026-04-02T13:02:50Z</time></trkpt><trkpt lat="43.99750245478077" lon="3.060987326347681"><ele>522.6666666666666</ele><time>2026-04-02T13:02:51Z</time></trkpt><trkpt lat="43.99759383730936" lon="3.0612466385946315"><ele>526.3333333333333</ele><time>2026-04-02T13:02:52Z</time></trkpt><trkpt lat="43.997683321509264" lon="3.0615087361392357"><ele>530.0</ele><time>2026-04-02T13:02:53Z</time></trkpt><trkpt lat="43.99776538199495" lon="3.0617787297964596"><ele>530.0</ele><time>2026-04-02T13:02:54Z</time></trkpt><trkpt lat="43.997816123495305" lon="3.062052832573219"><ele>530.0</ele><time>2026-04-02T13:02:55Z</time></trkpt><trkpt lat="43.99782682795162" lon="3.0623214231440494"><ele>530.0</ele><time>2026-04-02T13:02:56Z</time></trkpt><trkpt lat="43.99781177007187" lon="3.0626022988327546"><ele>530.3333333333333</ele><time>2026-04-02T13:02:57Z</time></trkpt><trkpt lat="43.99779322739179" lon="3.0628801228050286"><ele>530.6666666666666</ele><time>2026-04-02T13:02:58Z</time></trkpt><trkpt lat="43.99775814353714" lon="3.063157543923885"><ele>531.0</ele><time>2026-04-02T13:02:59Z</time></trkpt><trkpt lat="43.997711987214586" lon="3.063448003000296"><ele>531.0</ele><time>2026-04-02T13:03:00Z</time></trkpt><trkpt lat="43.9976735656613" lon="3.063743269635959"><ele>531.0</ele><time>2026-04-02T13:03:01Z</time></trkpt><trkpt lat="43.997668202141824" lon="3.064031961516981"><ele>531.0</ele><time>2026-04-02T13:03:02Z</time></trkpt><trkpt lat="43.997681085021" lon="3.0643423399833356"><ele>530.0</ele><time>2026-04-02T13:03:03Z</time></trkpt><trkpt lat="43.99771376415975" lon="3.064650981183646"><ele>529.0</ele><time>2026-04-02T13:03:04Z</time></trkpt><trkpt lat="43.997755918146325" lon="3.0649628740136365"><ele>529.0</ele><time>2026-04-02T13:03:05Z</time></trkpt><trkpt lat="43.997834921565854" lon="3.0652607698972654"><ele>529.0</ele><time>2026-04-02T13:03:06Z</time></trkpt><trkpt lat="43.99791503616636" lon="3.0655726587273877"><ele>525.6666666666667</ele><time>2026-04-02T13:03:07Z</time></trkpt><trkpt lat="43.99798217558648" lon="3.065886083226767"><ele>522.3333333333334</ele><time>2026-04-02T13:03:08Z</time></trkpt><trkpt lat="43.998033976100864" lon="3.066174020118596"><ele>519.0</ele><time>2026-04-02T13:03:09Z</time></trkpt><trkpt lat="43.99806672810591" lon="3.066447726420708"><ele>517.3333333333334</ele><time>2026-04-02T13:03:10Z</time></trkpt><trkpt lat="43.998030541923434" lon="3.066720195383899"><ele>515.6666666666667</ele><time>2026-04-02T13:03:11Z</time></trkpt><trkpt lat="43.9979705942434" lon="3.0669821025767248"><ele>514.0</ele><time>2026-04-02T13:03:12Z</time></trkpt><trkpt lat="43.997914038695306" lon="3.0672725247452437"><ele>515.6666666666667</ele><time>2026-04-02T13:03:13Z</time></trkpt><trkpt lat="43.99783784419815" lon="3.067565251148874"><ele>517.3333333333334</ele><time>2026-04-02T13:03:14Z</time></trkpt><trkpt lat="43.99778965222966" lon="3.0678609470554155"><ele>519.0</ele><time>2026-04-02T13:03:15Z</time></trkpt><trkpt lat="43.99773785708306" lon="3.0681212026768283"><ele>522.6666666666666</ele><time>2026-04-02T13:03:16Z</time></trkpt><trkpt lat="43.99761923627977" lon="3.068334502667935"><ele>526.3333333333333</ele><time>2026-04-02T13:03:17Z</time></trkpt><trkpt lat="43.99750552060204" lon="3.068569483536575"><ele>530.0</ele><time>2026-04-02T13:03:18Z</time></trkpt><trkpt lat="43.99737250307945" lon="3.068782851547621"><ele>518.0</ele><time>2026-04-02T13:03:19Z</time></trkpt><trkpt lat="43.99727741740306" lon="3.0689838906325044"><ele>506.0</ele><time>2026-04-02T13:03:20Z</time></trkpt><trkpt lat="43.99723645212521" lon="3.0691704412783305"><ele>494.0</ele><time>2026-04-02T13:03:21Z</time></trkpt><trkpt lat="43.99724918761527" lon="3.0693726814711204"><ele>494.0</ele><time>2026-04-02T13:03:22Z</time></trkpt><trkpt lat="43.99731019806462" lon="3.0696102214221104"><ele>494.0</ele><time>2026-04-02T13:03:23Z</time></trkpt><trkpt lat="43.99739276556401" lon="3.069867327017417"><ele>494.0</ele><time>2026-04-02T13:03:24Z</time></trkpt><trkpt lat="43.99748154227939" lon="3.0701435643934083"><ele>507.3333333333333</ele><time>2026-04-02T13:03:25Z</time></trkpt><trkpt lat="43.997566302672475" lon="3.0704387911893654"><ele>520.6666666666666</ele><time>2026-04-02T13:03:26Z</time></trkpt><trkpt lat="43.99762473302312" lon="3.070707748140225"><ele>534.0</ele><time>2026-04-02T13:03:27Z</time></trkpt><trkpt lat="43.99760953652222" lon="3.071009904167757"><ele>534.3333333333334</ele><time>2026-04-02T13:03:28Z</time></trkpt><trkpt lat="43.99762832269839" lon="3.0713197807816717"><ele>534.6666666666667</ele><time>2026-04-02T13:03:29Z</time></trkpt><trkpt lat="43.99761904621461" lon="3.071631507332276"><ele>535.0</ele><time>2026-04-02T13:03:30Z</time></trkpt><trkpt lat="43.997619343216265" lon="3.071936320177821"><ele>539.5</ele><time>2026-04-02T13:03:31Z</time></trkpt><trkpt lat="43.99764122878018" lon="3.0722553398486827"><ele>544.0</ele><time>2026-04-02T13:03:32Z</time></trkpt><trkpt lat="43.997688698570535" lon="3.072600370753848"><ele>546.5</ele><time>2026-04-02T13:03:33Z</time></trkpt><trkpt lat="43.997733783394" lon="3.0729421238658974"><ele>549.0</ele><time>2026-04-02T13:03:34Z</time></trkpt><trkpt lat="43.99776350460428" lon="3.0732592917855057"><ele>547.0</ele><time>2026-04-02T13:03:35Z</time></trkpt><trkpt lat="43.99777555447185" lon="3.0735567342043604"><ele>545.0</ele><time>2026-04-02T13:03:36Z</time></trkpt><trkpt lat="43.997735786270844" lon="3.073830363394806"><ele>543.0</ele><time>2026-04-02T13:03:37Z</time></trkpt><trkpt lat="43.997674359531814" lon="3.074091141867891"><ele>543.3333333333334</ele><time>2026-04-02T13:03:38Z</time></trkpt><trkpt lat="43.997576653753654" lon="3.07433652552338"><ele>543.6666666666667</ele><time>2026-04-02T13:03:39Z</time></trkpt><trkpt lat="43.99745624017536" lon="3.0745695429510724"><ele>544.0</ele><time>2026-04-02T13:03:40Z</time></trkpt><trkpt lat="43.99732960035699" lon="3.0747826276284886"><ele>528.0</ele><time>2026-04-02T13:03:41Z</time></trkpt><trkpt lat="43.997168655342875" lon="3.074992194960202"><ele>512.0</ele><time>2026-04-02T13:03:42Z</time></trkpt><trkpt lat="43.99698855665116" lon="3.075214824507851"><ele>512.0</ele><time>2026-04-02T13:03:43Z</time></trkpt><trkpt lat="43.99681006911172" lon="3.0754620041522007"><ele>512.0</ele><time>2026-04-02T13:03:44Z</time></trkpt><trkpt lat="43.996627260871776" lon="3.0756755628019374"><ele>510.0</ele><time>2026-04-02T13:03:45Z</time></trkpt><trkpt lat="43.99646634861765" lon="3.075872039286625"><ele>508.0</ele><time>2026-04-02T13:03:46Z</time></trkpt><trkpt lat="43.9963361170186" lon="3.076050047273909"><ele>506.0</ele><time>2026-04-02T13:03:47Z</time></trkpt><trkpt lat="43.99623579129733" lon="3.0762215659209935"><ele>506.0</ele><time>2026-04-02T13:03:48Z</time></trkpt><trkpt lat="43.99614603347194" lon="3.0764059194258992"><ele>506.0</ele><time>2026-04-02T13:03:49Z</time></trkpt><trkpt lat="43.99605098818407" lon="3.076588758156618"><ele>506.0</ele><time>2026-04-02T13:03:50Z</time></trkpt><trkpt lat="43.995978146087026" lon="3.0767405142647917"><ele>513.0</ele><time>2026-04-02T13:03:51Z</time></trkpt><trkpt lat="43.99616805722825" lon="3.0771135948983837"><ele>520.0</ele><time>2026-04-02T13:03:52Z</time></trkpt><trkpt lat="43.9962406421526" lon="3.077336879868883"><ele>520.6666666666667</ele><time>2026-04-02T13:03:53Z</time></trkpt><trkpt lat="43.996335335162854" lon="3.0775794269687635"><ele>521.3333333333334</ele><time>2026-04-02T13:03:54Z</time></trkpt><trkpt lat="43.99641033446805" lon="3.0778700185669674"><ele>522.0</ele><time>2026-04-02T13:03:55Z</time></trkpt><trkpt lat="43.996438393811005" lon="3.078173717454791"><ele>521.5</ele><time>2026-04-02T13:03:56Z</time></trkpt><trkpt lat="43.99642768965222" lon="3.078491330808385"><ele>521.0</ele><time>2026-04-02T13:03:57Z</time></trkpt><trkpt lat="43.99640394850804" lon="3.0788239479073978"><ele>521.5</ele><time>2026-04-02T13:03:58Z</time></trkpt><trkpt lat="43.996379148699134" lon="3.0791653356431468"><ele>522.0</ele><time>2026-04-02T13:03:59Z</time></trkpt><trkpt lat="43.99634270211985" lon="3.079508453881336"><ele>522.0</ele><time>2026-04-02T13:04:00Z</time></trkpt><trkpt lat="43.996286294855224" lon="3.079846693737376"><ele>522.0</ele><time>2026-04-02T13:04:01Z</time></trkpt><trkpt lat="43.996215327502796" lon="3.0801873781258102"><ele>526.5</ele><time>2026-04-02T13:04:02Z</time></trkpt><trkpt lat="43.996134220414156" lon="3.080531380063056"><ele>531.0</ele><time>2026-04-02T13:04:03Z</time></trkpt><trkpt lat="43.99604039876133" lon="3.0808778313969643"><ele>537.5</ele><time>2026-04-02T13:04:04Z</time></trkpt><trkpt lat="43.9959452782101" lon="3.0812134502415347"><ele>544.0</ele><time>2026-04-02T13:04:05Z</time></trkpt><trkpt lat="43.99585847321402" lon="3.0815575436784166"><ele>527.5</ele><time>2026-04-02T13:04:06Z</time></trkpt><trkpt lat="43.99578311393563" lon="3.0819092136960022"><ele>511.0</ele><time>2026-04-02T13:04:07Z</time></trkpt><trkpt lat="43.99571320686086" lon="3.0822592376797155"><ele>513.0</ele><time>2026-04-02T13:04:08Z</time></trkpt><trkpt lat="43.9956403038101" lon="3.082608449357579"><ele>515.0</ele><time>2026-04-02T13:04:09Z</time></trkpt><trkpt lat="43.99555919871253" lon="3.082955024059901"><ele>520.5</ele><time>2026-04-02T13:04:10Z</time></trkpt><trkpt lat="43.995466066746005" lon="3.083293880238803"><ele>526.0</ele><time>2026-04-02T13:04:11Z</time></trkpt><trkpt lat="43.995360751857355" lon="3.083615004909251"><ele>526.0</ele><time>2026-04-02T13:04:12Z</time></trkpt><trkpt lat="43.99525208401851" lon="3.0839349089350634"><ele>526.0</ele><time>2026-04-02T13:04:13Z</time></trkpt><trkpt lat="43.99515362965453" lon="3.0842431983605962"><ele>518.0</ele><time>2026-04-02T13:04:14Z</time></trkpt><trkpt lat="43.99506782445331" lon="3.0845602611713496"><ele>510.0</ele><time>2026-04-02T13:04:15Z</time></trkpt><trkpt lat="43.99500111522566" lon="3.084879164380343"><ele>511.0</ele><time>2026-04-02T13:04:16Z</time></trkpt><trkpt lat="43.99495045900017" lon="3.085195882029742"><ele>512.0</ele><time>2026-04-02T13:04:17Z</time></trkpt><trkpt lat="43.99491498881378" lon="3.0854667009525336"><ele>513.0</ele><time>2026-04-02T13:04:18Z</time></trkpt><trkpt lat="43.9949048780745" lon="3.0856993653670193"><ele>514.0</ele><time>2026-04-02T13:04:19Z</time></trkpt><trkpt lat="43.99493984735753" lon="3.0859158771283925"><ele>515.0</ele><time>2026-04-02T13:04:20Z</time></trkpt><trkpt lat="43.995016151165316" lon="3.086151037476479"><ele>516.0</ele><time>2026-04-02T13:04:21Z</time></trkpt><trkpt lat="43.99512372128945" lon="3.086414183178227"><ele>539.5</ele><time>2026-04-02T13:04:22Z</time></trkpt><trkpt lat="43.99522830530808" lon="3.0867106423336828"><ele>563.0</ele><time>2026-04-02T13:04:23Z</time></trkpt><trkpt lat="43.995311459700694" lon="3.0869879640722058"><ele>563.0</ele><time>2026-04-02T13:04:24Z</time></trkpt><trkpt lat="43.99538289043167" lon="3.0872450526836928"><ele>563.0</ele><time>2026-04-02T13:04:25Z</time></trkpt><trkpt lat="43.99544161451213" lon="3.0874985597952684"><ele>563.0</ele><time>2026-04-02T13:04:26Z</time></trkpt><trkpt lat="43.995484297409405" lon="3.0877946204951487"><ele>559.3333333333333</ele><time>2026-04-02T13:04:27Z</time></trkpt><trkpt lat="43.99551650995338" lon="3.088101567526252"><ele>555.6666666666666</ele><time>2026-04-02T13:04:28Z</time></trkpt><trkpt lat="43.99555739703827" lon="3.0883861571815427"><ele>552.0</ele><time>2026-04-02T13:04:29Z</time></trkpt><trkpt lat="43.99561694513822" lon="3.088639751106141"><ele>547.3333333333334</ele><time>2026-04-02T13:04:30Z</time></trkpt><trkpt lat="43.995709980329785" lon="3.0888778851991714"><ele>542.6666666666667</ele><time>2026-04-02T13:04:31Z</time></trkpt><trkpt lat="43.995830892734695" lon="3.0891053602412395"><ele>538.0</ele><time>2026-04-02T13:04:32Z</time></trkpt><trkpt lat="43.995967630117846" lon="3.089337239099707"><ele>539.0</ele><time>2026-04-02T13:04:33Z</time></trkpt><trkpt lat="43.99610964240258" lon="3.089575681376642"><ele>540.0</ele><time>2026-04-02T13:04:34Z</time></trkpt><trkpt lat="43.996250378769396" lon="3.0898135197211785"><ele>541.0</ele><time>2026-04-02T13:04:35Z</time></trkpt><trkpt lat="43.99640048285792" lon="3.0900413796000015"><ele>541.0</ele><time>2026-04-02T13:04:36Z</time></trkpt><trkpt lat="43.996533246561626" lon="3.090243138632174"><ele>541.0</ele><time>2026-04-02T13:04:37Z</time></trkpt><trkpt lat="43.99663851946732" lon="3.0904413366709"><ele>541.0</ele><time>2026-04-02T13:04:38Z</time></trkpt><trkpt lat="43.99672010666888" lon="3.0906280936004524"><ele>546.0</ele><time>2026-04-02T13:04:39Z</time></trkpt><trkpt lat="43.996779609647945" lon="3.0908139091835274"><ele>551.0</ele><time>2026-04-02T13:04:40Z</time></trkpt><trkpt lat="43.996806951960046" lon="3.0910225302449565"><ele>556.0</ele><time>2026-04-02T13:04:41Z</time></trkpt><trkpt lat="43.996791093391" lon="3.0912435691920024"><ele>556.0</ele><time>2026-04-02T13:04:42Z</time></trkpt><trkpt lat="43.996748780323045" lon="3.091441908532896"><ele>556.0</ele><time>2026-04-02T13:04:43Z</time></trkpt><trkpt lat="43.99669024475169" lon="3.091614931098552"><ele>556.0</ele><time>2026-04-02T13:04:44Z</time></trkpt><trkpt lat="43.99660536665389" lon="3.091780122655845"><ele>556.0</ele><time>2026-04-02T13:04:45Z</time></trkpt><trkpt lat="43.996490774395916" lon="3.0919272155565354"><ele>547.3333333333334</ele><time>2026-04-02T13:04:46Z</time></trkpt><trkpt lat="43.996376369072514" lon="3.0920747194157236"><ele>538.6666666666666</ele><time>2026-04-02T13:04:47Z</time></trkpt><trkpt lat="43.99627686998696" lon="3.0922331812618014"><ele>530.0</ele><time>2026-04-02T13:04:48Z</time></trkpt><trkpt lat="43.99619777279938" lon="3.0923987621961553"><ele>531.6666666666666</ele><time>2026-04-02T13:04:49Z</time></trkpt><trkpt lat="43.9961569680842" lon="3.0925912991100124"><ele>533.3333333333334</ele><time>2026-04-02T13:04:50Z</time></trkpt><trkpt lat="43.99614420609919" lon="3.0928264891355224"><ele>535.0</ele><time>2026-04-02T13:04:51Z</time></trkpt><trkpt lat="43.996140457266854" lon="3.0931037328505675"><ele>536.3333333333334</ele><time>2026-04-02T13:04:52Z</time></trkpt><trkpt lat="43.99612855209837" lon="3.0933641857790892"><ele>537.6666666666666</ele><time>2026-04-02T13:04:53Z</time></trkpt><trkpt lat="43.996104784237374" lon="3.0935802732567166"><ele>539.0</ele><time>2026-04-02T13:04:54Z</time></trkpt><trkpt lat="43.996073107429446" lon="3.0937630877077176"><ele>539.0</ele><time>2026-04-02T13:04:55Z</time></trkpt><trkpt lat="43.99602072954068" lon="3.093936399741166"><ele>539.0</ele><time>2026-04-02T13:04:56Z</time></trkpt><trkpt lat="43.99591672271813" lon="3.0940771930285167"><ele>539.0</ele><time>2026-04-02T13:04:57Z</time></trkpt><trkpt lat="43.99581470179262" lon="3.094222127757192"><ele>539.0</ele><time>2026-04-02T13:04:58Z</time></trkpt><trkpt lat="43.99570760694241" lon="3.094364912013308"><ele>537.25</ele><time>2026-04-02T13:04:59Z</time></trkpt><trkpt lat="43.995621630541876" lon="3.0945283637206913"><ele>535.5</ele><time>2026-04-02T13:05:00Z</time></trkpt><trkpt lat="43.99555562447154" lon="3.0947054129162868"><ele>533.75</ele><time>2026-04-02T13:05:01Z</time></trkpt><trkpt lat="43.99553894671906" lon="3.094907279414557"><ele>532.0</ele><time>2026-04-02T13:05:02Z</time></trkpt><trkpt lat="43.995574823686816" lon="3.0951053240377204"><ele>532.0</ele><time>2026-04-02T13:05:03Z</time></trkpt><trkpt lat="43.99564022451305" lon="3.0952864260391584"><ele>532.0</ele><time>2026-04-02T13:05:04Z</time></trkpt><trkpt lat="43.995651033951134" lon="3.0954966064724796"><ele>532.0</ele><time>2026-04-02T13:05:05Z</time></trkpt><trkpt lat="43.99562497504752" lon="3.09573497540424"><ele>532.6666666666667</ele><time>2026-04-02T13:05:06Z</time></trkpt><trkpt lat="43.995584638749676" lon="3.0959644810453675"><ele>533.3333333333334</ele><time>2026-04-02T13:05:07Z</time></trkpt><trkpt lat="43.99551252689542" lon="3.096165261634774"><ele>534.0</ele><time>2026-04-02T13:05:08Z</time></trkpt><trkpt lat="43.995412186664836" lon="3.096352763711171"><ele>534.0</ele><time>2026-04-02T13:05:09Z</time></trkpt><trkpt lat="43.995308595642406" lon="3.0965490298317118"><ele>534.0</ele><time>2026-04-02T13:05:10Z</time></trkpt><trkpt lat="43.99522746656365" lon="3.0967534730248523"><ele>534.0</ele><time>2026-04-02T13:05:11Z</time></trkpt><trkpt lat="43.99518454015957" lon="3.0969212628783596"><ele>535.0</ele><time>2026-04-02T13:05:12Z</time></trkpt><trkpt lat="43.99520360688806" lon="3.0971171363103474"><ele>536.0</ele><time>2026-04-02T13:05:13Z</time></trkpt><trkpt lat="43.99526964756971" lon="3.0973388753902946"><ele>537.0</ele><time>2026-04-02T13:05:14Z</time></trkpt><trkpt lat="43.9953331909792" lon="3.097540557883547"><ele>537.0</ele><time>2026-04-02T13:05:15Z</time></trkpt><trkpt lat="43.995376306925365" lon="3.097717915507945"><ele>537.0</ele><time>2026-04-02T13:05:16Z</time></trkpt><trkpt lat="43.99539990463576" lon="3.0978905466331703"><ele>537.0</ele><time>2026-04-02T13:05:17Z</time></trkpt><trkpt lat="43.995410072010586" lon="3.0980572539069833"><ele>537.0</ele><time>2026-04-02T13:05:18Z</time></trkpt><trkpt lat="43.99539445151709" lon="3.098224297280343"><ele>537.0</ele><time>2026-04-02T13:05:19Z</time></trkpt><trkpt lat="43.99540628741835" lon="3.098404637196766"><ele>537.0</ele><time>2026-04-02T13:05:20Z</time></trkpt><trkpt lat="43.99539940820206" lon="3.098595648586559"><ele>537.0</ele><time>2026-04-02T13:05:21Z</time></trkpt><trkpt lat="43.99539443419617" lon="3.098793834634679"><ele>537.0</ele><time>2026-04-02T13:05:22Z</time></trkpt><trkpt lat="43.99539180659161" lon="3.0989800259889564"><ele>536.6</ele><time>2026-04-02T13:05:23Z</time></trkpt><trkpt lat="43.99539506367972" lon="3.099147746815233"><ele>536.2</ele><time>2026-04-02T13:05:24Z</time></trkpt><trkpt lat="43.995401290996206" lon="3.0993063642833363"><ele>535.8</ele><time>2026-04-02T13:05:25Z</time></trkpt><trkpt lat="43.99541415936667" lon="3.0994570095402896"><ele>535.4</ele><time>2026-04-02T13:05:26Z</time></trkpt><trkpt lat="43.995425342586906" lon="3.099595819871859"><ele>535.0</ele><time>2026-04-02T13:05:27Z</time></trkpt><trkpt lat="43.99537825850641" lon="3.0997086449813045"><ele>535.0</ele><time>2026-04-02T13:05:28Z</time></trkpt><trkpt lat="43.995345907320505" lon="3.099839979894107"><ele>535.0</ele><time>2026-04-02T13:05:29Z</time></trkpt><trkpt lat="43.99528223504423" lon="3.0999631503215475"><ele>535.0</ele><time>2026-04-02T13:05:30Z</time></trkpt><trkpt lat="43.99526540911218" lon="3.1001110385546804"><ele>535.0</ele><time>2026-04-02T13:05:31Z</time></trkpt><trkpt lat="43.995292746168126" lon="3.1002837078155974"><ele>535.0</ele><time>2026-04-02T13:05:32Z</time></trkpt><trkpt lat="43.99532815745873" lon="3.1004809653145875"><ele>534.3333333333334</ele><time>2026-04-02T13:05:33Z</time></trkpt><trkpt lat="43.995345733106745" lon="3.100693132396223"><ele>533.6666666666666</ele><time>2026-04-02T13:05:34Z</time></trkpt><trkpt lat="43.99536265494787" lon="3.100918059324469"><ele>533.0</ele><time>2026-04-02T13:05:35Z</time></trkpt><trkpt lat="43.9953764950713" lon="3.1011780287859456"><ele>530.0</ele><time>2026-04-02T13:05:36Z</time></trkpt><trkpt lat="43.995414900891056" lon="3.1014311439571367"><ele>527.0</ele><time>2026-04-02T13:05:37Z</time></trkpt><trkpt lat="43.99543491715333" lon="3.10170902869736"><ele>524.0</ele><time>2026-04-02T13:05:38Z</time></trkpt><trkpt lat="43.9954595005184" lon="3.1019900546223504"><ele>524.0</ele><time>2026-04-02T13:05:39Z</time></trkpt><trkpt lat="43.99549087094259" lon="3.10228658733632"><ele>524.0</ele><time>2026-04-02T13:05:40Z</time></trkpt><trkpt lat="43.99551843912952" lon="3.102562995034379"><ele>524.0</ele><time>2026-04-02T13:05:41Z</time></trkpt><trkpt lat="43.99554954247457" lon="3.1028265958729695"><ele>524.0</ele><time>2026-04-02T13:05:42Z</time></trkpt><trkpt lat="43.99561113064797" lon="3.103073967622263"><ele>524.0</ele><time>2026-04-02T13:05:43Z</time></trkpt><trkpt lat="43.99570132356192" lon="3.103296300637357"><ele>524.0</ele><time>2026-04-02T13:05:44Z</time></trkpt><trkpt lat="43.99578901938604" lon="3.103498996391214"><ele>525.0</ele><time>2026-04-02T13:05:45Z</time></trkpt><trkpt lat="43.99585728113724" lon="3.103689618670186"><ele>526.0</ele><time>2026-04-02T13:05:46Z</time></trkpt><trkpt lat="43.995898587230045" lon="3.1038899797072386"><ele>527.0</ele><time>2026-04-02T13:05:47Z</time></trkpt><trkpt lat="43.99586278948336" lon="3.1041099456906767"><ele>526.6666666666666</ele><time>2026-04-02T13:05:48Z</time></trkpt><trkpt lat="43.995836827537616" lon="3.10435187958805"><ele>526.3333333333334</ele><time>2026-04-02T13:05:49Z</time></trkpt><trkpt lat="43.99581882930117" lon="3.104633784703512"><ele>526.0</ele><time>2026-04-02T13:05:50Z</time></trkpt><trkpt lat="43.995782167072235" lon="3.10492443068995"><ele>526.0</ele><time>2026-04-02T13:05:51Z</time></trkpt><trkpt lat="43.995741783894246" lon="3.105221386840468"><ele>526.0</ele><time>2026-04-02T13:05:52Z</time></trkpt><trkpt lat="43.99567482282926" lon="3.1055011455851775"><ele>526.0</ele><time>2026-04-02T13:05:53Z</time></trkpt><trkpt lat="43.995628996152995" lon="3.105794662489049"><ele>526.0</ele><time>2026-04-02T13:05:54Z</time></trkpt><trkpt lat="43.995567324240504" lon="3.1060747525741625"><ele>526.0</ele><time>2026-04-02T13:05:55Z</time></trkpt><trkpt lat="43.9955032985084" lon="3.1063576779832447"><ele>526.0</ele><time>2026-04-02T13:05:56Z</time></trkpt><trkpt lat="43.995415166898745" lon="3.1066307907416775"><ele>526.3333333333334</ele><time>2026-04-02T13:05:57Z</time></trkpt><trkpt lat="43.995309151603415" lon="3.106878132895828"><ele>526.6666666666666</ele><time>2026-04-02T13:05:58Z</time></trkpt><trkpt lat="43.99517643443016" lon="3.1071282901204027"><ele>527.0</ele><time>2026-04-02T13:05:59Z</time></trkpt><trkpt lat="43.99504540138904" lon="3.1073821252000413"><ele>527.6666666666666</ele><time>2026-04-02T13:06:00Z</time></trkpt><trkpt lat="43.99492874558508" lon="3.107634915358345"><ele>528.3333333333334</ele><time>2026-04-02T13:06:01Z</time></trkpt><trkpt lat="43.99479438177025" lon="3.107871968111165"><ele>529.0</ele><time>2026-04-02T13:06:02Z</time></trkpt><trkpt lat="43.99466950550562" lon="3.1081084863024375"><ele>529.3333333333334</ele><time>2026-04-02T13:06:03Z</time></trkpt><trkpt lat="43.99454432653978" lon="3.108342948658477"><ele>529.6666666666666</ele><time>2026-04-02T13:06:04Z</time></trkpt><trkpt lat="43.994422409504814" lon="3.108569304908195"><ele>530.0</ele><time>2026-04-02T13:06:05Z</time></trkpt><trkpt lat="43.994276989653486" lon="3.1087653248584695"><ele>530.6666666666666</ele><time>2026-04-02T13:06:06Z</time></trkpt><trkpt lat="43.99411413822392" lon="3.1088893855270947"><ele>531.3333333333334</ele><time>2026-04-02T13:06:07Z</time></trkpt><trkpt lat="43.99393193943987" lon="3.1089250938501762"><ele>532.0</ele><time>2026-04-02T13:06:08Z</time></trkpt><trkpt lat="43.99373532549211" lon="3.108968896974703"><ele>532.0</ele><time>2026-04-02T13:06:09Z</time></trkpt><trkpt lat="43.99354187533203" lon="3.1090158466539304"><ele>532.0</ele><time>2026-04-02T13:06:10Z</time></trkpt><trkpt lat="43.99330858620461" lon="3.1091402861675332"><ele>532.0</ele><time>2026-04-02T13:06:11Z</time></trkpt><trkpt lat="43.99322116760016" lon="3.1095306494238257"><ele>533.5</ele><time>2026-04-02T13:06:12Z</time></trkpt><trkpt lat="43.993075706342964" lon="3.109789141959275"><ele>535.0</ele><time>2026-04-02T13:06:13Z</time></trkpt><trkpt lat="43.99292480468556" lon="3.110045081629103"><ele>536.5</ele><time>2026-04-02T13:06:14Z</time></trkpt><trkpt lat="43.99277257614915" lon="3.11032561747729"><ele>538.0</ele><time>2026-04-02T13:06:15Z</time></trkpt><trkpt lat="43.9926276042365" lon="3.110620648460718"><ele>536.5</ele><time>2026-04-02T13:06:16Z</time></trkpt><trkpt lat="43.992465063301516" lon="3.1109033009931237"><ele>535.0</ele><time>2026-04-02T13:06:17Z</time></trkpt><trkpt lat="43.99230603800952" lon="3.1111773881748013"><ele>535.0</ele><time>2026-04-02T13:06:18Z</time></trkpt><trkpt lat="43.99215125368" lon="3.1114393837966627"><ele>535.0</ele><time>2026-04-02T13:06:19Z</time></trkpt><trkpt lat="43.99199684440827" lon="3.1117132601354536"><ele>538.5</ele><time>2026-04-02T13:06:20Z</time></trkpt><trkpt lat="43.99185846824383" lon="3.1119945135017737"><ele>542.0</ele><time>2026-04-02T13:06:21Z</time></trkpt><trkpt lat="43.991731034078526" lon="3.1122807338409344"><ele>541.0</ele><time>2026-04-02T13:06:22Z</time></trkpt><trkpt lat="43.991593977763586" lon="3.112563964201762"><ele>540.0</ele><time>2026-04-02T13:06:23Z</time></trkpt><trkpt lat="43.99143835492438" lon="3.112828459630879"><ele>540.0</ele><time>2026-04-02T13:06:24Z</time></trkpt><trkpt lat="43.99126607356764" lon="3.113080761521604"><ele>540.0</ele><time>2026-04-02T13:06:25Z</time></trkpt><trkpt lat="43.991082456388654" lon="3.113327333917404"><ele>541.0</ele><time>2026-04-02T13:06:26Z</time></trkpt><trkpt lat="43.990887702970355" lon="3.113590259312741"><ele>542.0</ele><time>2026-04-02T13:06:27Z</time></trkpt><trkpt lat="43.99068858789138" lon="3.1138798253494806"><ele>546.5</ele><time>2026-04-02T13:06:28Z</time></trkpt><trkpt lat="43.9904924948243" lon="3.1141810890000934"><ele>551.0</ele><time>2026-04-02T13:06:29Z</time></trkpt><trkpt lat="43.99031506682105" lon="3.1144832611980346"><ele>551.0</ele><time>2026-04-02T13:06:30Z</time></trkpt><trkpt lat="43.99015116515965" lon="3.1147955852881695"><ele>551.0</ele><time>2026-04-02T13:06:31Z</time></trkpt><trkpt lat="43.98999874090171" lon="3.115111369147157"><ele>550.0</ele><time>2026-04-02T13:06:32Z</time></trkpt><trkpt lat="43.98985940424399" lon="3.115394106021491"><ele>549.0</ele><time>2026-04-02T13:06:33Z</time></trkpt><trkpt lat="43.98973118860409" lon="3.1156484794646477"><ele>551.0</ele><time>2026-04-02T13:06:34Z</time></trkpt><trkpt lat="43.989602093200716" lon="3.1158742152999244"><ele>553.0</ele><time>2026-04-02T13:06:35Z</time></trkpt><trkpt lat="43.98944985479416" lon="3.1160423117499483"><ele>555.0</ele><time>2026-04-02T13:06:36Z</time></trkpt><trkpt lat="43.98929439479014" lon="3.1161897686311057"><ele>554.0</ele><time>2026-04-02T13:06:37Z</time></trkpt><trkpt lat="43.98913091710376" lon="3.1163343848686016"><ele>553.0</ele><time>2026-04-02T13:06:38Z</time></trkpt><trkpt lat="43.988939889406936" lon="3.1164598809950173"><ele>552.0</ele><time>2026-04-02T13:06:39Z</time></trkpt><trkpt lat="43.98875305844024" lon="3.116626708009743"><ele>557.0</ele><time>2026-04-02T13:06:40Z</time></trkpt><trkpt lat="43.988576409021626" lon="3.1168331823727184"><ele>562.0</ele><time>2026-04-02T13:06:41Z</time></trkpt><trkpt lat="43.98839532151974" lon="3.117051572344428"><ele>563.0</ele><time>2026-04-02T13:06:42Z</time></trkpt><trkpt lat="43.98821776956503" lon="3.117256806222362"><ele>564.0</ele><time>2026-04-02T13:06:43Z</time></trkpt><trkpt lat="43.98804461527461" lon="3.117487983608505"><ele>564.0</ele><time>2026-04-02T13:06:44Z</time></trkpt><trkpt lat="43.98787854473875" lon="3.117768588601895"><ele>564.0</ele><time>2026-04-02T13:06:45Z</time></trkpt><trkpt lat="43.98771919518033" lon="3.118082591835342"><ele>561.5</ele><time>2026-04-02T13:06:46Z</time></trkpt><trkpt lat="43.98756425084248" lon="3.118388489380988"><ele>559.0</ele><time>2026-04-02T13:06:47Z</time></trkpt><trkpt lat="43.987410196153306" lon="3.118686153497448"><ele>559.0</ele><time>2026-04-02T13:06:48Z</time></trkpt><trkpt lat="43.987272076417035" lon="3.118999457754429"><ele>559.0</ele><time>2026-04-02T13:06:49Z</time></trkpt><trkpt lat="43.98714273372595" lon="3.1193404882773734"><ele>566.0</ele><time>2026-04-02T13:06:50Z</time></trkpt><trkpt lat="43.98700130584642" lon="3.11968641393384"><ele>573.0</ele><time>2026-04-02T13:06:51Z</time></trkpt><trkpt lat="43.98684785412175" lon="3.1200454336402657"><ele>573.0</ele><time>2026-04-02T13:06:52Z</time></trkpt><trkpt lat="43.9866927832139" lon="3.1204025312831374"><ele>573.0</ele><time>2026-04-02T13:06:53Z</time></trkpt><trkpt lat="43.98653767271697" lon="3.120761776119282"><ele>573.0</ele><time>2026-04-02T13:06:54Z</time></trkpt><trkpt lat="43.98638161117117" lon="3.121119814610028"><ele>573.0</ele><time>2026-04-02T13:06:55Z</time></trkpt><trkpt lat="43.98622324062928" lon="3.121458098329244"><ele>579.5</ele><time>2026-04-02T13:06:56Z</time></trkpt><trkpt lat="43.9860588479726" lon="3.1217801372672396"><ele>586.0</ele><time>2026-04-02T13:06:57Z</time></trkpt><trkpt lat="43.98590279790966" lon="3.122082836853248"><ele>579.0</ele><time>2026-04-02T13:06:58Z</time></trkpt><trkpt lat="43.98574801452239" lon="3.1223778332723153"><ele>572.0</ele><time>2026-04-02T13:06:59Z</time></trkpt><trkpt lat="43.985590788428134" lon="3.122649175230001"><ele>572.0</ele><time>2026-04-02T13:07:00Z</time></trkpt><trkpt lat="43.985446791133356" lon="3.122884696626681"><ele>572.0</ele><time>2026-04-02T13:07:01Z</time></trkpt><trkpt lat="43.98532584870131" lon="3.1231193816914824"><ele>572.0</ele><time>2026-04-02T13:07:02Z</time></trkpt><trkpt lat="43.98523935900686" lon="3.1233570082632225"><ele>569.6666666666666</ele><time>2026-04-02T13:07:03Z</time></trkpt><trkpt lat="43.985169544335555" lon="3.123587227270378"><ele>567.3333333333334</ele><time>2026-04-02T13:07:04Z</time></trkpt><trkpt lat="43.98507040309138" lon="3.1237731404965543"><ele>565.0</ele><time>2026-04-02T13:07:05Z</time></trkpt><trkpt lat="43.9849262351162" lon="3.123907559229783"><ele>565.0</ele><time>2026-04-02T13:07:06Z</time></trkpt><trkpt lat="43.984752119854235" lon="3.1239886753651636"><ele>565.0</ele><time>2026-04-02T13:07:07Z</time></trkpt><trkpt lat="43.98455020086707" lon="3.124059145956363"><ele>565.0</ele><time>2026-04-02T13:07:08Z</time></trkpt><trkpt lat="43.98434190706738" lon="3.124131601394681"><ele>566.6666666666667</ele><time>2026-04-02T13:07:09Z</time></trkpt><trkpt lat="43.98417542933298" lon="3.124179906848352"><ele>568.3333333333334</ele><time>2026-04-02T13:07:10Z</time></trkpt><trkpt lat="43.984025315522146" lon="3.1242538026817965"><ele>570.0</ele><time>2026-04-02T13:07:11Z</time></trkpt><trkpt lat="43.98388904569522" lon="3.124394757441789"><ele>570.0</ele><time>2026-04-02T13:07:12Z</time></trkpt><trkpt lat="43.983783686570455" lon="3.124588983414161"><ele>570.0</ele><time>2026-04-02T13:07:13Z</time></trkpt><trkpt lat="43.98372854543812" lon="3.12482213193587"><ele>570.0</ele><time>2026-04-02T13:07:14Z</time></trkpt><trkpt lat="43.98371458766999" lon="3.1250744495167555"><ele>574.6666666666666</ele><time>2026-04-02T13:07:15Z</time></trkpt><trkpt lat="43.983733695963195" lon="3.1253338634011665"><ele>579.3333333333333</ele><time>2026-04-02T13:07:16Z</time></trkpt><trkpt lat="43.983738720917835" lon="3.1255952625507017"><ele>584.0</ele><time>2026-04-02T13:07:17Z</time></trkpt><trkpt lat="43.983665584815604" lon="3.1258453703277485"><ele>586.3333333333333</ele><time>2026-04-02T13:07:18Z</time></trkpt><trkpt lat="43.9835532531995" lon="3.126106396457047"><ele>588.6666666666666</ele><time>2026-04-02T13:07:19Z</time></trkpt><trkpt lat="43.983458699851035" lon="3.1263542543590224"><ele>591.0</ele><time>2026-04-02T13:07:20Z</time></trkpt><trkpt lat="43.983401723679016" lon="3.1265821621291554"><ele>592.0</ele><time>2026-04-02T13:07:21Z</time></trkpt><trkpt lat="43.983399586417335" lon="3.1268162157053014"><ele>593.0</ele><time>2026-04-02T13:07:22Z</time></trkpt><trkpt lat="43.98343701335124" lon="3.127069371863585"><ele>594.0</ele><time>2026-04-02T13:07:23Z</time></trkpt><trkpt lat="43.98346592281069" lon="3.1273633729721486"><ele>594.6666666666666</ele><time>2026-04-02T13:07:24Z</time></trkpt><trkpt lat="43.983458371932905" lon="3.1276716660558397"><ele>595.3333333333333</ele><time>2026-04-02T13:07:25Z</time></trkpt><trkpt lat="43.983427991917075" lon="3.1279553233417836"><ele>596.0</ele><time>2026-04-02T13:07:26Z</time></trkpt><trkpt lat="43.98336969879219" lon="3.1282233047854584"><ele>587.5</ele><time>2026-04-02T13:07:27Z</time></trkpt><trkpt lat="43.98326551037963" lon="3.1285128135300115"><ele>579.0</ele><time>2026-04-02T13:07:28Z</time></trkpt><trkpt lat="43.98313238482297" lon="3.1287686948019675"><ele>579.0</ele><time>2026-04-02T13:07:29Z</time></trkpt><trkpt lat="43.98302063009533" lon="3.1289756527382258"><ele>579.0</ele><time>2026-04-02T13:07:30Z</time></trkpt><trkpt lat="43.98296352155256" lon="3.129156919118617"><ele>579.0</ele><time>2026-04-02T13:07:31Z</time></trkpt><trkpt lat="43.982960981718584" lon="3.1293680585343178"><ele>579.0</ele><time>2026-04-02T13:07:32Z</time></trkpt><trkpt lat="43.98298695827176" lon="3.129624021536622"><ele>579.0</ele><time>2026-04-02T13:07:33Z</time></trkpt><trkpt lat="43.98301135024089" lon="3.129896649039676"><ele>579.0</ele><time>2026-04-02T13:07:34Z</time></trkpt><trkpt lat="43.98301324595367" lon="3.1301116985673043"><ele>578.3333333333334</ele><time>2026-04-02T13:07:35Z</time></trkpt><trkpt lat="43.982975887137236" lon="3.130296040669938"><ele>577.6666666666667</ele><time>2026-04-02T13:07:36Z</time></trkpt><trkpt lat="43.9828803803102" lon="3.1304754388229505"><ele>577.0</ele><time>2026-04-02T13:07:37Z</time></trkpt><trkpt lat="43.98273996409705" lon="3.1306615310887533"><ele>576.6666666666667</ele><time>2026-04-02T13:07:38Z</time></trkpt><trkpt lat="43.98260486255567" lon="3.130837071527937"><ele>576.3333333333334</ele><time>2026-04-02T13:07:39Z</time></trkpt><trkpt lat="43.982498249011755" lon="3.131013779106587"><ele>576.0</ele><time>2026-04-02T13:07:40Z</time></trkpt><trkpt lat="43.982418524307874" lon="3.131199824472462"><ele>576.0</ele><time>2026-04-02T13:07:41Z</time></trkpt><trkpt lat="43.9823728030597" lon="3.1314138798242146"><ele>576.0</ele><time>2026-04-02T13:07:42Z</time></trkpt><trkpt lat="43.982381912089906" lon="3.1316437476467414"><ele>576.0</ele><time>2026-04-02T13:07:43Z</time></trkpt><trkpt lat="43.9824285075682" lon="3.1318625118546977"><ele>576.5</ele><time>2026-04-02T13:07:44Z</time></trkpt><trkpt lat="43.982462810288496" lon="3.1320466599060337"><ele>577.0</ele><time>2026-04-02T13:07:45Z</time></trkpt><trkpt lat="43.98244289315556" lon="3.1322186158248235"><ele>577.5</ele><time>2026-04-02T13:07:46Z</time></trkpt><trkpt lat="43.982351853576326" lon="3.1323633792156493"><ele>578.0</ele><time>2026-04-02T13:07:47Z</time></trkpt><trkpt lat="43.98225406740801" lon="3.1325616765136814"><ele>578.0</ele><time>2026-04-02T13:07:48Z</time></trkpt><trkpt lat="43.9821573302951" lon="3.1327729103313326"><ele>578.0</ele><time>2026-04-02T13:07:49Z</time></trkpt><trkpt lat="43.98208408889966" lon="3.1329497431142745"><ele>578.0</ele><time>2026-04-02T13:07:50Z</time></trkpt><trkpt lat="43.98204369411352" lon="3.1331476708998744"><ele>581.6666666666666</ele><time>2026-04-02T13:07:51Z</time></trkpt><trkpt lat="43.98201697396146" lon="3.133372627363073"><ele>585.3333333333334</ele><time>2026-04-02T13:07:52Z</time></trkpt><trkpt lat="43.981997681088835" lon="3.133604814106484"><ele>589.0</ele><time>2026-04-02T13:07:53Z</time></trkpt><trkpt lat="43.98198173851737" lon="3.133826393172096"><ele>589.0</ele><time>2026-04-02T13:07:54Z</time></trkpt><trkpt lat="43.98195806462472" lon="3.1340344802567492"><ele>589.0</ele><time>2026-04-02T13:07:55Z</time></trkpt><trkpt lat="43.981931336126436" lon="3.134228351498623"><ele>589.0</ele><time>2026-04-02T13:07:56Z</time></trkpt><trkpt lat="43.981904104903776" lon="3.134422185360421"><ele>589.0</ele><time>2026-04-02T13:07:57Z</time></trkpt><trkpt lat="43.98187856404302" lon="3.1346223400913673"><ele>591.0</ele><time>2026-04-02T13:07:58Z</time></trkpt><trkpt lat="43.98185654702279" lon="3.1348089540103263"><ele>593.0</ele><time>2026-04-02T13:07:59Z</time></trkpt><trkpt lat="43.981841405772684" lon="3.1349772206746245"><ele>595.0</ele><time>2026-04-02T13:08:00Z</time></trkpt><trkpt lat="43.98183842942221" lon="3.135126500546092"><ele>597.0</ele><time>2026-04-02T13:08:01Z</time></trkpt><trkpt lat="43.9818536893515" lon="3.135269769466808"><ele>597.2</ele><time>2026-04-02T13:08:02Z</time></trkpt><trkpt lat="43.98188975379018" lon="3.13540183211378"><ele>597.4000000000001</ele><time>2026-04-02T13:08:03Z</time></trkpt><trkpt lat="43.98193238076008" lon="3.135536173277975"><ele>597.5999999999999</ele><time>2026-04-02T13:08:04Z</time></trkpt><trkpt lat="43.981974609288336" lon="3.1356731321715094"><ele>597.8</ele><time>2026-04-02T13:08:05Z</time></trkpt><trkpt lat="43.98200495372526" lon="3.135791695320002"><ele>598.0</ele><time>2026-04-02T13:08:06Z</time></trkpt><trkpt lat="43.982026896214826" lon="3.135906307148765"><ele>598.0</ele><time>2026-04-02T13:08:07Z</time></trkpt><trkpt lat="43.982041913686565" lon="3.136021657326212"><ele>598.0</ele><time>2026-04-02T13:08:08Z</time></trkpt><trkpt lat="43.98204386550875" lon="3.13613891998025"><ele>598.0</ele><time>2026-04-02T13:08:09Z</time></trkpt><trkpt lat="43.98203984726925" lon="3.1362437462017048"><ele>598.0</ele><time>2026-04-02T13:08:10Z</time></trkpt><trkpt lat="43.982029986892236" lon="3.136345931576572"><ele>598.0</ele><time>2026-04-02T13:08:11Z</time></trkpt><trkpt lat="43.98201298640895" lon="3.1364511709694574"><ele>598.0</ele><time>2026-04-02T13:08:12Z</time></trkpt><trkpt lat="43.9819887300236" lon="3.1365587130143817"><ele>597.5</ele><time>2026-04-02T13:08:13Z</time></trkpt><trkpt lat="43.98196141969256" lon="3.1366587205211234"><ele>597.0</ele><time>2026-04-02T13:08:14Z</time></trkpt><trkpt lat="43.98193409809945" lon="3.136764186906036"><ele>596.5</ele><time>2026-04-02T13:08:15Z</time></trkpt><trkpt lat="43.98190708741528" lon="3.1368760424040536"><ele>596.0</ele><time>2026-04-02T13:08:16Z</time></trkpt><trkpt lat="43.98188500200357" lon="3.1369804214861596"><ele>595.5</ele><time>2026-04-02T13:08:17Z</time></trkpt><trkpt lat="43.981868493059935" lon="3.137103902188568"><ele>595.0</ele><time>2026-04-02T13:08:18Z</time></trkpt><trkpt lat="43.981869297971144" lon="3.137256646291479"><ele>595.0</ele><time>2026-04-02T13:08:19Z</time></trkpt><trkpt lat="43.98187495896309" lon="3.137422150914683"><ele>595.0</ele><time>2026-04-02T13:08:20Z</time></trkpt><trkpt lat="43.98187751396797" lon="3.1375810188341258"><ele>595.0</ele><time>2026-04-02T13:08:21Z</time></trkpt><trkpt lat="43.981873614972834" lon="3.1377631390638"><ele>595.0</ele><time>2026-04-02T13:08:22Z</time></trkpt><trkpt lat="43.98186225438578" lon="3.1379757401476644"><ele>595.3333333333334</ele><time>2026-04-02T13:08:23Z</time></trkpt><trkpt lat="43.98185408246881" lon="3.138234031992352"><ele>595.6666666666666</ele><time>2026-04-02T13:08:24Z</time></trkpt><trkpt lat="43.981849022539635" lon="3.1385311776548264"><ele>596.0</ele><time>2026-04-02T13:08:25Z</time></trkpt><trkpt lat="43.981841693270674" lon="3.1388414751808016"><ele>597.0</ele><time>2026-04-02T13:08:26Z</time></trkpt><trkpt lat="43.98183577505426" lon="3.139160708903343"><ele>598.0</ele><time>2026-04-02T13:08:27Z</time></trkpt><trkpt lat="43.981830106152174" lon="3.139516169930485"><ele>599.5</ele><time>2026-04-02T13:08:28Z</time></trkpt><trkpt lat="43.98182764443828" lon="3.1398925538897804"><ele>601.0</ele><time>2026-04-02T13:08:29Z</time></trkpt><trkpt lat="43.981826471061055" lon="3.1402440452474814"><ele>601.0</ele><time>2026-04-02T13:08:30Z</time></trkpt><trkpt lat="43.981821637144385" lon="3.140559109288584"><ele>601.0</ele><time>2026-04-02T13:08:31Z</time></trkpt><trkpt lat="43.981815350913955" lon="3.14086624297806"><ele>601.0</ele><time>2026-04-02T13:08:32Z</time></trkpt><trkpt lat="43.98180775748693" lon="3.1411758855929555"><ele>602.5</ele><time>2026-04-02T13:08:33Z</time></trkpt><trkpt lat="43.98180874308942" lon="3.14150975489357"><ele>604.0</ele><time>2026-04-02T13:08:34Z</time></trkpt><trkpt lat="43.981809696165804" lon="3.1418757684134664"><ele>606.0</ele><time>2026-04-02T13:08:35Z</time></trkpt><trkpt lat="43.981800028740345" lon="3.142254563049689"><ele>608.0</ele><time>2026-04-02T13:08:36Z</time></trkpt><trkpt lat="43.981785066185786" lon="3.142622785560991"><ele>608.0</ele><time>2026-04-02T13:08:37Z</time></trkpt><trkpt lat="43.98177687950464" lon="3.143009827865341"><ele>608.0</ele><time>2026-04-02T13:08:38Z</time></trkpt><trkpt lat="43.981773545610345" lon="3.143416358011337"><ele>607.0</ele><time>2026-04-02T13:08:39Z</time></trkpt><trkpt lat="43.98177235145295" lon="3.1438068033649085"><ele>606.0</ele><time>2026-04-02T13:08:40Z</time></trkpt><trkpt lat="43.981773480180415" lon="3.1441806181593948"><ele>608.5</ele><time>2026-04-02T13:08:41Z</time></trkpt><trkpt lat="43.98177770146114" lon="3.144526722283951"><ele>611.0</ele><time>2026-04-02T13:08:42Z</time></trkpt><trkpt lat="43.981800892355096" lon="3.144884292440945"><ele>611.5</ele><time>2026-04-02T13:08:43Z</time></trkpt><trkpt lat="43.98185383078161" lon="3.1452456076595334"><ele>612.0</ele><time>2026-04-02T13:08:44Z</time></trkpt><trkpt lat="43.98192579254754" lon="3.14560019861714"><ele>615.0</ele><time>2026-04-02T13:08:45Z</time></trkpt><trkpt lat="43.98198918353134" lon="3.145950459586971"><ele>618.0</ele><time>2026-04-02T13:08:46Z</time></trkpt><trkpt lat="43.982037644651676" lon="3.1463018526901516"><ele>621.0</ele><time>2026-04-02T13:08:47Z</time></trkpt><trkpt lat="43.98208248878063" lon="3.146652640193348"><ele>624.0</ele><time>2026-04-02T13:08:48Z</time></trkpt><trkpt lat="43.98212137710308" lon="3.147014756468672"><ele>624.0</ele><time>2026-04-02T13:08:49Z</time></trkpt><trkpt lat="43.98210679422219" lon="3.1473691720374313"><ele>624.0</ele><time>2026-04-02T13:08:50Z</time></trkpt><trkpt lat="43.98209509409414" lon="3.147682943290834"><ele>623.0</ele><time>2026-04-02T13:08:51Z</time></trkpt><trkpt lat="43.982046618268726" lon="3.147956487105079"><ele>622.0</ele><time>2026-04-02T13:08:52Z</time></trkpt><trkpt lat="43.98195541167391" lon="3.1481863509100325"><ele>621.0</ele><time>2026-04-02T13:08:53Z</time></trkpt><trkpt lat="43.98182931164874" lon="3.148381544362115"><ele>620.0</ele><time>2026-04-02T13:08:54Z</time></trkpt><trkpt lat="43.981668952888" lon="3.148513900039839"><ele>619.0</ele><time>2026-04-02T13:08:55Z</time></trkpt><trkpt lat="43.981482060980206" lon="3.148641471830878"><ele>618.0</ele><time>2026-04-02T13:08:56Z</time></trkpt><trkpt lat="43.98130674797593" lon="3.1487662356541746"><ele>618.0</ele><time>2026-04-02T13:08:57Z</time></trkpt><trkpt lat="43.981142934403294" lon="3.1489091514149243"><ele>618.0</ele><time>2026-04-02T13:08:58Z</time></trkpt><trkpt lat="43.98100698814439" lon="3.149122574454171"><ele>618.0</ele><time>2026-04-02T13:08:59Z</time></trkpt><trkpt lat="43.9809054551207" lon="3.149377151629426"><ele>620.0</ele><time>2026-04-02T13:09:00Z</time></trkpt><trkpt lat="43.98086815162976" lon="3.149665908004806"><ele>622.0</ele><time>2026-04-02T13:09:01Z</time></trkpt><trkpt lat="43.98090211310399" lon="3.149963518469138"><ele>624.0</ele><time>2026-04-02T13:09:02Z</time></trkpt><trkpt lat="43.980992579441306" lon="3.1502552905172054"><ele>628.5</ele><time>2026-04-02T13:09:03Z</time></trkpt><trkpt lat="43.98112430879322" lon="3.150536893562015"><ele>633.0</ele><time>2026-04-02T13:09:04Z</time></trkpt><trkpt lat="43.981269327934285" lon="3.150819276777091"><ele>633.3333333333334</ele><time>2026-04-02T13:09:05Z</time></trkpt><trkpt lat="43.98137768335533" lon="3.1511047116359823"><ele>633.6666666666667</ele><time>2026-04-02T13:09:06Z</time></trkpt><trkpt lat="43.98144684681087" lon="3.1513817635461527"><ele>634.0</ele><time>2026-04-02T13:09:07Z</time></trkpt><trkpt lat="43.98144515174821" lon="3.1516540866334917"><ele>634.3333333333334</ele><time>2026-04-02T13:09:08Z</time></trkpt><trkpt lat="43.98139837931213" lon="3.1519114694373407"><ele>634.6666666666666</ele><time>2026-04-02T13:09:09Z</time></trkpt><trkpt lat="43.981303002070945" lon="3.1521273890070685"><ele>635.0</ele><time>2026-04-02T13:09:10Z</time></trkpt><trkpt lat="43.98117037496187" lon="3.1523160550730545"><ele>634.6666666666666</ele><time>2026-04-02T13:09:11Z</time></trkpt><trkpt lat="43.981011975222" lon="3.1524509391210604"><ele>634.3333333333334</ele><time>2026-04-02T13:09:12Z</time></trkpt><trkpt lat="43.980833028611144" lon="3.152487266424003"><ele>634.0</ele><time>2026-04-02T13:09:13Z</time></trkpt><trkpt lat="43.98064669514663" lon="3.152489835253777"><ele>634.0</ele><time>2026-04-02T13:09:14Z</time></trkpt><trkpt lat="43.980453804323794" lon="3.152453973407522"><ele>634.0</ele><time>2026-04-02T13:09:15Z</time></trkpt><trkpt lat="43.980282273187484" lon="3.152439745988052"><ele>634.0</ele><time>2026-04-02T13:09:16Z</time></trkpt><trkpt lat="43.98013964671017" lon="3.1521143112935017"><ele>634.0</ele><time>2026-04-02T13:09:17Z</time></trkpt><trkpt lat="43.98001610450073" lon="3.151893015420573"><ele>634.0</ele><time>2026-04-02T13:09:18Z</time></trkpt><trkpt lat="43.97986873342" lon="3.151712619027428"><ele>634.0</ele><time>2026-04-02T13:09:19Z</time></trkpt><trkpt lat="43.97970552460123" lon="3.151604919998416"><ele>634.0</ele><time>2026-04-02T13:09:20Z</time></trkpt><trkpt lat="43.97954060264551" lon="3.1515483288292345"><ele>634.0</ele><time>2026-04-02T13:09:21Z</time></trkpt><trkpt lat="43.97936785777904" lon="3.1515780194279235"><ele>634.0</ele><time>2026-04-02T13:09:22Z</time></trkpt><trkpt lat="43.97921495622576" lon="3.1516739681986743"><ele>635.6666666666667</ele><time>2026-04-02T13:09:23Z</time></trkpt><trkpt lat="43.97909707730784" lon="3.1518189211792644"><ele>637.3333333333334</ele><time>2026-04-02T13:09:24Z</time></trkpt><trkpt lat="43.97902779182796" lon="3.1520319505987118"><ele>639.0</ele><time>2026-04-02T13:09:25Z</time></trkpt><trkpt lat="43.979002531743035" lon="3.1522993104046497"><ele>641.3333333333334</ele><time>2026-04-02T13:09:26Z</time></trkpt><trkpt lat="43.978999962057166" lon="3.1525878541697567"><ele>643.6666666666667</ele><time>2026-04-02T13:09:27Z</time></trkpt><trkpt lat="43.97897828802926" lon="3.152891786102708"><ele>646.0</ele><time>2026-04-02T13:09:28Z</time></trkpt><trkpt lat="43.978942073227046" lon="3.153213492734277"><ele>648.5</ele><time>2026-04-02T13:09:29Z</time></trkpt><trkpt lat="43.97890434906034" lon="3.1535599854319485"><ele>651.0</ele><time>2026-04-02T13:09:30Z</time></trkpt><trkpt lat="43.97887839647686" lon="3.153881047952436"><ele>653.6666666666666</ele><time>2026-04-02T13:09:31Z</time></trkpt><trkpt lat="43.9788507187265" lon="3.1541693658635386"><ele>656.3333333333333</ele><time>2026-04-02T13:09:32Z</time></trkpt><trkpt lat="43.978788379710885" lon="3.1544517145764113"><ele>659.0</ele><time>2026-04-02T13:09:33Z</time></trkpt><trkpt lat="43.97867669473537" lon="3.1546953112138336"><ele>659.0</ele><time>2026-04-02T13:09:34Z</time></trkpt><trkpt lat="43.9785194802424" lon="3.1548906115812954"><ele>659.0</ele><time>2026-04-02T13:09:35Z</time></trkpt><trkpt lat="43.97832187127016" lon="3.1550506672290375"><ele>659.0</ele><time>2026-04-02T13:09:36Z</time></trkpt><trkpt lat="43.978107625710706" lon="3.1552111265454577"><ele>659.0</ele><time>2026-04-02T13:09:37Z</time></trkpt><trkpt lat="43.97789257036078" lon="3.1553964590210732"><ele>659.0</ele><time>2026-04-02T13:09:38Z</time></trkpt><trkpt lat="43.97767069688105" lon="3.1555911367903637"><ele>662.0</ele><time>2026-04-02T13:09:39Z</time></trkpt><trkpt lat="43.977444980559966" lon="3.1557688489463396"><ele>665.0</ele><time>2026-04-02T13:09:40Z</time></trkpt><trkpt lat="43.977213263138054" lon="3.1559071184849126"><ele>665.0</ele><time>2026-04-02T13:09:41Z</time></trkpt><trkpt lat="43.97697279446627" lon="3.155994525333717"><ele>665.0</ele><time>2026-04-02T13:09:42Z</time></trkpt><trkpt lat="43.97672764411174" lon="3.156039959468635"><ele>667.0</ele><time>2026-04-02T13:09:43Z</time></trkpt><trkpt lat="43.97647447171894" lon="3.156044816911172"><ele>669.0</ele><time>2026-04-02T13:09:44Z</time></trkpt><trkpt lat="43.9762247764797" lon="3.156011513703271"><ele>669.0</ele><time>2026-04-02T13:09:45Z</time></trkpt><trkpt lat="43.9759870827776" lon="3.15594935842381"><ele>669.0</ele><time>2026-04-02T13:09:46Z</time></trkpt><trkpt lat="43.97578062850206" lon="3.1558840703074527"><ele>670.3333333333334</ele><time>2026-04-02T13:09:47Z</time></trkpt><trkpt lat="43.975592804531274" lon="3.1558616744107466"><ele>671.6666666666667</ele><time>2026-04-02T13:09:48Z</time></trkpt><trkpt lat="43.9754144758674" lon="3.1558925256378108"><ele>673.0</ele><time>2026-04-02T13:09:49Z</time></trkpt><trkpt lat="43.975257741559766" lon="3.1559835057181025"><ele>673.0</ele><time>2026-04-02T13:09:50Z</time></trkpt><trkpt lat="43.97510205703921" lon="3.156111956417433"><ele>673.0</ele><time>2026-04-02T13:09:51Z</time></trkpt><trkpt lat="43.97493854035053" lon="3.1562849970808937"><ele>673.0</ele><time>2026-04-02T13:09:52Z</time></trkpt><trkpt lat="43.97477019845253" lon="3.1565015090452504"><ele>677.5</ele><time>2026-04-02T13:09:53Z</time></trkpt><trkpt lat="43.97459532094745" lon="3.156748877787838"><ele>682.0</ele><time>2026-04-02T13:09:54Z</time></trkpt><trkpt lat="43.974400096133444" lon="3.1569914033901476"><ele>682.0</ele><time>2026-04-02T13:09:55Z</time></trkpt><trkpt lat="43.97419124872867" lon="3.1572484464316655"><ele>682.0</ele><time>2026-04-02T13:09:56Z</time></trkpt><trkpt lat="43.97401025291641" lon="3.157476981412366"><ele>685.0</ele><time>2026-04-02T13:09:57Z</time></trkpt><trkpt lat="43.973821123418524" lon="3.1576912521694"><ele>688.0</ele><time>2026-04-02T13:09:58Z</time></trkpt><trkpt lat="43.97361085808222" lon="3.157858488757458"><ele>688.0</ele><time>2026-04-02T13:09:59Z</time></trkpt><trkpt lat="43.97337574468214" lon="3.1579423984179273"><ele>688.0</ele><time>2026-04-02T13:10:00Z</time></trkpt><trkpt lat="43.973141947742405" lon="3.157968231074689"><ele>689.3333333333334</ele><time>2026-04-02T13:10:01Z</time></trkpt><trkpt lat="43.97293609599659" lon="3.1580255051248716"><ele>690.6666666666666</ele><time>2026-04-02T13:10:02Z</time></trkpt><trkpt lat="43.972749688710195" lon="3.1581812127267517"><ele>692.0</ele><time>2026-04-02T13:10:03Z</time></trkpt><trkpt lat="43.97257700088482" lon="3.15840934313569"><ele>700.0</ele><time>2026-04-02T13:10:04Z</time></trkpt><trkpt lat="43.9723840545496" lon="3.1586329436219254"><ele>708.0</ele><time>2026-04-02T13:10:05Z</time></trkpt><trkpt lat="43.97216211266741" lon="3.1588131956231544"><ele>708.0</ele><time>2026-04-02T13:10:06Z</time></trkpt><trkpt lat="43.97194128021912" lon="3.1589660619634343"><ele>708.0</ele><time>2026-04-02T13:10:07Z</time></trkpt><trkpt lat="43.97172578267272" lon="3.1591214619986014"><ele>711.0</ele><time>2026-04-02T13:10:08Z</time></trkpt><trkpt lat="43.971531072071585" lon="3.159294991975435"><ele>714.0</ele><time>2026-04-02T13:10:09Z</time></trkpt><trkpt lat="43.97132669248282" lon="3.1594332465128443"><ele>714.0</ele><time>2026-04-02T13:10:10Z</time></trkpt><trkpt lat="43.97111600729076" lon="3.1595109931533636"><ele>714.0</ele><time>2026-04-02T13:10:11Z</time></trkpt><trkpt lat="43.970930144614684" lon="3.159591298696732"><ele>714.0</ele><time>2026-04-02T13:10:12Z</time></trkpt><trkpt lat="43.97077701290015" lon="3.1596878049952233"><ele>712.3333333333334</ele><time>2026-04-02T13:10:13Z</time></trkpt><trkpt lat="43.97063188836898" lon="3.1597415705714877"><ele>710.6666666666667</ele><time>2026-04-02T13:10:14Z</time></trkpt><trkpt lat="43.97047706904275" lon="3.1596940782634153"><ele>709.0</ele><time>2026-04-02T13:10:15Z</time></trkpt><trkpt lat="43.970343717572106" lon="3.1595428274115833"><ele>709.0</ele><time>2026-04-02T13:10:16Z</time></trkpt><trkpt lat="43.970275660160375" lon="3.159299713017506"><ele>709.0</ele><time>2026-04-02T13:10:17Z</time></trkpt><trkpt lat="43.970214189659146" lon="3.159015903669681"><ele>709.0</ele><time>2026-04-02T13:10:18Z</time></trkpt><trkpt lat="43.970147883085524" lon="3.158725792073034"><ele>708.3333333333334</ele><time>2026-04-02T13:10:19Z</time></trkpt><trkpt lat="43.970072799653636" lon="3.1584352185469644"><ele>707.6666666666666</ele><time>2026-04-02T13:10:20Z</time></trkpt><trkpt lat="43.969998619240855" lon="3.158162783085647"><ele>707.0</ele><time>2026-04-02T13:10:21Z</time></trkpt><trkpt lat="43.9698887909089" lon="3.1579114378288793"><ele>707.0</ele><time>2026-04-02T13:10:22Z</time></trkpt><trkpt lat="43.96971802067109" lon="3.157690603846124"><ele>707.0</ele><time>2026-04-02T13:10:23Z</time></trkpt><trkpt lat="43.96954304656494" lon="3.1574666540196126"><ele>711.0</ele><time>2026-04-02T13:10:24Z</time></trkpt><trkpt lat="43.96942021237816" lon="3.1572001855051957"><ele>715.0</ele><time>2026-04-02T13:10:25Z</time></trkpt><trkpt lat="43.969275750847096" lon="3.1569818984940947"><ele>719.0</ele><time>2026-04-02T13:10:26Z</time></trkpt><trkpt lat="43.96913159811426" lon="3.156808397005263"><ele>719.0</ele><time>2026-04-02T13:10:27Z</time></trkpt><trkpt lat="43.968963161098834" lon="3.156676947113218"><ele>719.0</ele><time>2026-04-02T13:10:28Z</time></trkpt><trkpt lat="43.968767294696576" lon="3.1565994812736324"><ele>719.0</ele><time>2026-04-02T13:10:29Z</time></trkpt><trkpt lat="43.9685606359568" lon="3.156585804279663"><ele>724.3333333333333</ele><time>2026-04-02T13:10:30Z</time></trkpt><trkpt lat="43.96834881926719" lon="3.1566378908649564"><ele>729.6666666666666</ele><time>2026-04-02T13:10:31Z</time></trkpt><trkpt lat="43.96814148706655" lon="3.1566883331480264"><ele>735.0</ele><time>2026-04-02T13:10:32Z</time></trkpt><trkpt lat="43.967968035873106" lon="3.156617621404697"><ele>725.0</ele><time>2026-04-02T13:10:33Z</time></trkpt><trkpt lat="43.96780726841445" lon="3.156504004783518"><ele>715.0</ele><time>2026-04-02T13:10:34Z</time></trkpt><trkpt lat="43.96762865458841" lon="3.1563919514074197"><ele>705.0</ele><time>2026-04-02T13:10:35Z</time></trkpt><trkpt lat="43.96747006900068" lon="3.156333905859318"><ele>705.0</ele><time>2026-04-02T13:10:36Z</time></trkpt><trkpt lat="43.967351889489386" lon="3.156328518280796"><ele>705.0</ele><time>2026-04-02T13:10:37Z</time></trkpt><trkpt lat="43.967251666324906" lon="3.1563683214247242"><ele>705.0</ele><time>2026-04-02T13:10:38Z</time></trkpt><trkpt lat="43.96717882271438" lon="3.156416015220858"><ele>705.0</ele><time>2026-04-02T13:10:39Z</time></trkpt><trkpt lat="43.967126311973374" lon="3.1564755019163204"><ele>705.0</ele><time>2026-04-02T13:10:41Z</time></trkpt><trkpt lat="43.96702670823407" lon="3.1566070273510136"><ele>713.75</ele><time>2026-04-02T13:12:15Z</time></trkpt><trkpt lat="43.96693818641573" lon="3.1567522869686515"><ele>722.5</ele><time>2026-04-02T13:12:16Z</time></trkpt><trkpt lat="43.96685979734015" lon="3.1569119538738497"><ele>731.25</ele><time>2026-04-02T13:12:17Z</time></trkpt><trkpt lat="43.96678527702876" lon="3.157099421393464"><ele>740.0</ele><time>2026-04-02T13:12:18Z</time></trkpt><trkpt lat="43.96672328122213" lon="3.157306453494795"><ele>739.3333333333333</ele><time>2026-04-02T13:12:19Z</time></trkpt><trkpt lat="43.966682227145135" lon="3.1575179827927933"><ele>738.6666666666666</ele><time>2026-04-02T13:12:20Z</time></trkpt><trkpt lat="43.96667339705833" lon="3.1577421467082045"><ele>738.0</ele><time>2026-04-02T13:12:21Z</time></trkpt><trkpt lat="43.96670053798338" lon="3.157972468660467"><ele>746.3333333333334</ele><time>2026-04-02T13:12:22Z</time></trkpt><trkpt lat="43.96673952220185" lon="3.1581972004532903"><ele>754.6666666666667</ele><time>2026-04-02T13:12:23Z</time></trkpt><trkpt lat="43.96674606560621" lon="3.158420869810918"><ele>763.0</ele><time>2026-04-02T13:12:24Z</time></trkpt><trkpt lat="43.96672319331806" lon="3.1586507276332494"><ele>761.5</ele><time>2026-04-02T13:12:25Z</time></trkpt><trkpt lat="43.96669384561911" lon="3.1588615084659493"><ele>760.0</ele><time>2026-04-02T13:12:26Z</time></trkpt><trkpt lat="43.96666063913888" lon="3.1590470955965486"><ele>758.5</ele><time>2026-04-02T13:12:27Z</time></trkpt><trkpt lat="43.96661343837302" lon="3.1591937084260637"><ele>757.0</ele><time>2026-04-02T13:12:28Z</time></trkpt><trkpt lat="43.96652769363447" lon="3.159302731452868"><ele>757.0</ele><time>2026-04-02T13:12:29Z</time></trkpt><trkpt lat="43.966412783238965" lon="3.1593424836857267"><ele>757.0</ele><time>2026-04-02T13:12:30Z</time></trkpt><trkpt lat="43.96628764107009" lon="3.159263004760445"><ele>757.0</ele><time>2026-04-02T13:12:31Z</time></trkpt><trkpt lat="43.96616488605247" lon="3.1592037767718253"><ele>757.0</ele><time>2026-04-02T13:12:32Z</time></trkpt><trkpt lat="43.96603739435362" lon="3.159120495803462"><ele>754.5</ele><time>2026-04-02T13:12:33Z</time></trkpt><trkpt lat="43.965923654619324" lon="3.1589914530085847"><ele>752.0</ele><time>2026-04-02T13:12:34Z</time></trkpt><trkpt lat="43.96581355550348" lon="3.1588684513441123"><ele>749.5</ele><time>2026-04-02T13:12:35Z</time></trkpt><trkpt lat="43.96570221135877" lon="3.158794771388391"><ele>747.0</ele><time>2026-04-02T13:12:36Z</time></trkpt><trkpt lat="43.965592412416385" lon="3.158771594942364"><ele>749.5</ele><time>2026-04-02T13:12:37Z</time></trkpt><trkpt lat="43.96548215512563" lon="3.158819047257476"><ele>752.0</ele><time>2026-04-02T13:12:38Z</time></trkpt><trkpt lat="43.9653795432248" lon="3.1589214278473836"><ele>754.5</ele><time>2026-04-02T13:12:39Z</time></trkpt><trkpt lat="43.96528161202617" lon="3.159077852095542"><ele>757.0</ele><time>2026-04-02T13:12:40Z</time></trkpt><trkpt lat="43.96518506957992" lon="3.159248859226663"><ele>757.0</ele><time>2026-04-02T13:12:41Z</time></trkpt><trkpt lat="43.96506940829578" lon="3.1593910300698336"><ele>757.0</ele><time>2026-04-02T13:12:42Z</time></trkpt><trkpt lat="43.96492908481339" lon="3.159444396927185"><ele>757.0</ele><time>2026-04-02T13:12:43Z</time></trkpt><trkpt lat="43.96480188921989" lon="3.1594533181720443"><ele>757.0</ele><time>2026-04-02T13:12:44Z</time></trkpt><trkpt lat="43.96466959027146" lon="3.1594099066112418"><ele>757.0</ele><time>2026-04-02T13:12:45Z</time></trkpt><trkpt lat="43.964517448400414" lon="3.159354486595874"><ele>757.0</ele><time>2026-04-02T13:12:46Z</time></trkpt><trkpt lat="43.96436188554095" lon="3.1592988071596873"><ele>757.0</ele><time>2026-04-02T13:12:47Z</time></trkpt><trkpt lat="43.96420851559597" lon="3.1592738838384506"><ele>758.25</ele><time>2026-04-02T13:12:48Z</time></trkpt><trkpt lat="43.964063249419404" lon="3.159229731444907"><ele>759.5</ele><time>2026-04-02T13:12:49Z</time></trkpt><trkpt lat="43.96393081532048" lon="3.1591883623384627"><ele>760.75</ele><time>2026-04-02T13:12:50Z</time></trkpt><trkpt lat="43.96381062880829" lon="3.1591252614069236"><ele>762.0</ele><time>2026-04-02T13:12:51Z</time></trkpt><trkpt lat="43.963698835270954" lon="3.159086196536254"><ele>762.0</ele><time>2026-04-02T13:12:52Z</time></trkpt><trkpt lat="43.96359335594655" lon="3.159052049459174"><ele>762.0</ele><time>2026-04-02T13:12:53Z</time></trkpt><trkpt lat="43.963502194141135" lon="3.159034294068008"><ele>762.0</ele><time>2026-04-02T13:12:54Z</time></trkpt><trkpt lat="43.96343137406961" lon="3.1590403911315823"><ele>762.0</ele><time>2026-04-02T13:12:55Z</time></trkpt><trkpt lat="43.963351387206934" lon="3.159058119381737"><ele>762.0</ele><time>2026-04-02T13:12:57Z</time></trkpt><trkpt lat="43.96338331508927" lon="3.1592643188300933"><ele>762.0</ele><time>2026-04-02T13:13:02Z</time></trkpt><trkpt lat="43.96345306745697" lon="3.15940756477763"><ele>762.0</ele><time>2026-04-02T13:13:03Z</time></trkpt><trkpt lat="43.963529497733646" lon="3.1595573369798156"><ele>762.0</ele><time>2026-04-02T13:13:04Z</time></trkpt><trkpt lat="43.96363161323606" lon="3.159784987901245"><ele>762.5</ele><time>2026-04-02T13:13:05Z</time></trkpt><trkpt lat="43.963760230316105" lon="3.1600474606704756"><ele>763.0</ele><time>2026-04-02T13:13:06Z</time></trkpt><trkpt lat="43.963906091880695" lon="3.1603420551674075"><ele>763.0</ele><time>2026-04-02T13:13:07Z</time></trkpt><trkpt lat="43.96406124722424" lon="3.160661359615916"><ele>763.0</ele><time>2026-04-02T13:13:08Z</time></trkpt><trkpt lat="43.96422342167313" lon="3.161000997754247"><ele>763.0</ele><time>2026-04-02T13:13:09Z</time></trkpt><trkpt lat="43.96439666960398" lon="3.16135413873957"><ele>763.0</ele><time>2026-04-02T13:13:10Z</time></trkpt><trkpt lat="43.96455886020858" lon="3.161694190111239"><ele>763.0</ele><time>2026-04-02T13:13:11Z</time></trkpt><trkpt lat="43.964730755653825" lon="3.162052780784267"><ele>763.0</ele><time>2026-04-02T13:13:12Z</time></trkpt><trkpt lat="43.964893646624034" lon="3.1623940429103197"><ele>765.5</ele><time>2026-04-02T13:13:13Z</time></trkpt><trkpt lat="43.965061036357795" lon="3.162733498232631"><ele>768.0</ele><time>2026-04-02T13:13:14Z</time></trkpt><trkpt lat="43.96522345979938" lon="3.1630725838816454"><ele>768.0</ele><time>2026-04-02T13:13:15Z</time></trkpt><trkpt lat="43.96538055308837" lon="3.163414807863139"><ele>768.0</ele><time>2026-04-02T13:13:16Z</time></trkpt><trkpt lat="43.96554322714373" lon="3.163758383835506"><ele>768.0</ele><time>2026-04-02T13:13:17Z</time></trkpt><trkpt lat="43.965707258255634" lon="3.1640929878389867"><ele>768.0</ele><time>2026-04-02T13:13:18Z</time></trkpt><trkpt lat="43.96586739934078" lon="3.1644234074817126"><ele>770.0</ele><time>2026-04-02T13:13:19Z</time></trkpt><trkpt lat="43.96601339700452" lon="3.1647279999856117"><ele>772.0</ele><time>2026-04-02T13:13:20Z</time></trkpt><trkpt lat="43.96616804837006" lon="3.1650368452525464"><ele>772.0</ele><time>2026-04-02T13:13:21Z</time></trkpt><trkpt lat="43.966330431272155" lon="3.165364670951836"><ele>772.0</ele><time>2026-04-02T13:13:22Z</time></trkpt><trkpt lat="43.96649449543528" lon="3.1657135079052376"><ele>771.0</ele><time>2026-04-02T13:13:23Z</time></trkpt><trkpt lat="43.96664891293725" lon="3.166054091266331"><ele>770.0</ele><time>2026-04-02T13:13:24Z</time></trkpt><trkpt lat="43.96680586786935" lon="3.16638072285506"><ele>771.5</ele><time>2026-04-02T13:13:25Z</time></trkpt><trkpt lat="43.966962716071734" lon="3.1667028634337138"><ele>773.0</ele><time>2026-04-02T13:13:26Z</time></trkpt><trkpt lat="43.96711626821465" lon="3.1669876216791506"><ele>773.0</ele><time>2026-04-02T13:13:27Z</time></trkpt><trkpt lat="43.96727828979962" lon="3.167246122549862"><ele>773.0</ele><time>2026-04-02T13:13:28Z</time></trkpt><trkpt lat="43.96745793296551" lon="3.1674929293752503"><ele>774.5</ele><time>2026-04-02T13:13:29Z</time></trkpt><trkpt lat="43.96764984986342" lon="3.1677570974797256"><ele>776.0</ele><time>2026-04-02T13:13:30Z</time></trkpt><trkpt lat="43.96784346994164" lon="3.168031652413243"><ele>775.0</ele><time>2026-04-02T13:13:31Z</time></trkpt><trkpt lat="43.96804725206703" lon="3.168314220829611"><ele>774.0</ele><time>2026-04-02T13:13:32Z</time></trkpt><trkpt lat="43.96825315806252" lon="3.1685923083405334"><ele>774.0</ele><time>2026-04-02T13:13:33Z</time></trkpt><trkpt lat="43.968460892120746" lon="3.168877665625445"><ele>774.0</ele><time>2026-04-02T13:13:34Z</time></trkpt><trkpt lat="43.96867094671811" lon="3.1691750686542988"><ele>774.0</ele><time>2026-04-02T13:13:35Z</time></trkpt><trkpt lat="43.968882247470525" lon="3.169465553593794"><ele>774.0</ele><time>2026-04-02T13:13:36Z</time></trkpt><trkpt lat="43.96910233743237" lon="3.1697565112580746"><ele>773.0</ele><time>2026-04-02T13:13:37Z</time></trkpt><trkpt lat="43.96930669071613" lon="3.1700415494317307"><ele>772.0</ele><time>2026-04-02T13:13:38Z</time></trkpt><trkpt lat="43.96950139310172" lon="3.170323615036765"><ele>772.0</ele><time>2026-04-02T13:13:39Z</time></trkpt><trkpt lat="43.96970925481082" lon="3.170610953431831"><ele>772.0</ele><time>2026-04-02T13:13:40Z</time></trkpt><trkpt lat="43.969911005574666" lon="3.170890314165468"><ele>771.5</ele><time>2026-04-02T13:13:41Z</time></trkpt><trkpt lat="43.97010610230621" lon="3.1711640860643078"><ele>771.0</ele><time>2026-04-02T13:13:42Z</time></trkpt><trkpt lat="43.97029437626366" lon="3.1714239182770676"><ele>770.5</ele><time>2026-04-02T13:13:43Z</time></trkpt><trkpt lat="43.97047767462102" lon="3.171676355482747"><ele>770.0</ele><time>2026-04-02T13:13:44Z</time></trkpt><trkpt lat="43.970655516300354" lon="3.1719148378598976"><ele>770.0</ele><time>2026-04-02T13:13:45Z</time></trkpt><trkpt lat="43.97082375085194" lon="3.1721499214939075"><ele>770.0</ele><time>2026-04-02T13:13:46Z</time></trkpt><trkpt lat="43.970976133171455" lon="3.172374254275789"><ele>771.5</ele><time>2026-04-02T13:13:47Z</time></trkpt><trkpt lat="43.97111968792602" lon="3.172645077831618"><ele>773.0</ele><time>2026-04-02T13:13:48Z</time></trkpt><trkpt lat="43.9712180649973" lon="3.1729821595679515"><ele>775.0</ele><time>2026-04-02T13:13:49Z</time></trkpt><trkpt lat="43.97131827905954" lon="3.1733016184234084"><ele>777.0</ele><time>2026-04-02T13:13:50Z</time></trkpt><trkpt lat="43.97140563018448" lon="3.173621644589919"><ele>777.0</ele><time>2026-04-02T13:13:51Z</time></trkpt><trkpt lat="43.97148897030822" lon="3.173946340682285"><ele>777.0</ele><time>2026-04-02T13:13:52Z</time></trkpt><trkpt lat="43.97157942166849" lon="3.174252653947432"><ele>777.5</ele><time>2026-04-02T13:13:53Z</time></trkpt><trkpt lat="43.97166513485857" lon="3.1745714990674823"><ele>778.0</ele><time>2026-04-02T13:13:54Z</time></trkpt><trkpt lat="43.971752347260455" lon="3.1748976656117214"><ele>781.5</ele><time>2026-04-02T13:13:55Z</time></trkpt><trkpt lat="43.97184354623832" lon="3.1752060094966383"><ele>785.0</ele><time>2026-04-02T13:13:56Z</time></trkpt><trkpt lat="43.971935008900466" lon="3.175535356693598"><ele>785.0</ele><time>2026-04-02T13:13:57Z</time></trkpt><trkpt lat="43.97202429655996" lon="3.175846633405914"><ele>785.0</ele><time>2026-04-02T13:13:58Z</time></trkpt><trkpt lat="43.97211468798141" lon="3.1761711733378846"><ele>785.0</ele><time>2026-04-02T13:13:59Z</time></trkpt><trkpt lat="43.97220879522114" lon="3.176514094773128"><ele>785.0</ele><time>2026-04-02T13:14:00Z</time></trkpt><trkpt lat="43.97230117077585" lon="3.1768426610806704"><ele>784.5</ele><time>2026-04-02T13:14:01Z</time></trkpt><trkpt lat="43.97239023673081" lon="3.177171108277318"><ele>784.0</ele><time>2026-04-02T13:14:02Z</time></trkpt><trkpt lat="43.972475698755765" lon="3.177497641370064"><ele>788.5</ele><time>2026-04-02T13:14:03Z</time></trkpt><trkpt lat="43.97254826543083" lon="3.1778374360342476"><ele>793.0</ele><time>2026-04-02T13:14:04Z</time></trkpt><trkpt lat="43.972607371600965" lon="3.1781803647940916"><ele>793.0</ele><time>2026-04-02T13:14:05Z</time></trkpt><trkpt lat="43.97265228046513" lon="3.178540525766507"><ele>793.0</ele><time>2026-04-02T13:14:06Z</time></trkpt><trkpt lat="43.97267036899967" lon="3.1788932504126852"><ele>793.5</ele><time>2026-04-02T13:14:07Z</time></trkpt><trkpt lat="43.972672352442125" lon="3.179268163009765"><ele>794.0</ele><time>2026-04-02T13:14:08Z</time></trkpt><trkpt lat="43.97267172448981" lon="3.1796410727423408"><ele>793.5</ele><time>2026-04-02T13:14:09Z</time></trkpt><trkpt lat="43.97267310422342" lon="3.1800198816142613"><ele>793.0</ele><time>2026-04-02T13:14:10Z</time></trkpt><trkpt lat="43.97267642411882" lon="3.1803726341701686"><ele>789.5</ele><time>2026-04-02T13:14:11Z</time></trkpt><trkpt lat="43.972673933675274" lon="3.180736458893812"><ele>786.0</ele><time>2026-04-02T13:14:12Z</time></trkpt><trkpt lat="43.97267029323726" lon="3.1810934212988733"><ele>786.0</ele><time>2026-04-02T13:14:13Z</time></trkpt><trkpt lat="43.97266784025567" lon="3.1813859914183333"><ele>786.0</ele><time>2026-04-02T13:14:14Z</time></trkpt><trkpt lat="43.97265486579913" lon="3.181628592106078"><ele>786.0</ele><time>2026-04-02T13:14:15Z</time></trkpt><trkpt lat="43.97260727377198" lon="3.1818848322093967"><ele>785.3333333333333</ele><time>2026-04-02T13:14:16Z</time></trkpt><trkpt lat="43.97251411354241" lon="3.1821323915139113"><ele>784.6666666666666</ele><time>2026-04-02T13:14:17Z</time></trkpt><trkpt lat="43.97239899725631" lon="3.1823611072737394"><ele>784.0</ele><time>2026-04-02T13:14:18Z</time></trkpt><trkpt lat="43.972342764097455" lon="3.182605889348334"><ele>781.5</ele><time>2026-04-02T13:14:19Z</time></trkpt><trkpt lat="43.97235102061021" lon="3.1829145209263907"><ele>779.0</ele><time>2026-04-02T13:14:20Z</time></trkpt><trkpt lat="43.97241357050667" lon="3.1832283016780734"><ele>778.0</ele><time>2026-04-02T13:14:21Z</time></trkpt><trkpt lat="43.9724974034688" lon="3.1835475040180063"><ele>777.0</ele><time>2026-04-02T13:14:22Z</time></trkpt><trkpt lat="43.972569449919824" lon="3.1838551673675686"><ele>772.5</ele><time>2026-04-02T13:14:23Z</time></trkpt><trkpt lat="43.97263797774746" lon="3.1841683534194214"><ele>768.0</ele><time>2026-04-02T13:14:24Z</time></trkpt><trkpt lat="43.972706822676344" lon="3.184482078233879"><ele>768.0</ele><time>2026-04-02T13:14:25Z</time></trkpt><trkpt lat="43.97277802090159" lon="3.184791363489407"><ele>768.0</ele><time>2026-04-02T13:14:26Z</time></trkpt><trkpt lat="43.97286522341834" lon="3.185097058576157"><ele>767.5</ele><time>2026-04-02T13:14:27Z</time></trkpt><trkpt lat="43.972979043939276" lon="3.1853953981363743"><ele>767.0</ele><time>2026-04-02T13:14:28Z</time></trkpt><trkpt lat="43.973118252547216" lon="3.1856935891879923"><ele>767.0</ele><time>2026-04-02T13:14:29Z</time></trkpt><trkpt lat="43.97325679759817" lon="3.185972654702874"><ele>767.0</ele><time>2026-04-02T13:14:30Z</time></trkpt><trkpt lat="43.9733942510346" lon="3.186254701204921"><ele>765.5</ele><time>2026-04-02T13:14:31Z</time></trkpt><trkpt lat="43.97351831069798" lon="3.186527996064134"><ele>764.0</ele><time>2026-04-02T13:14:32Z</time></trkpt><trkpt lat="43.973636899630705" lon="3.186800376455164"><ele>764.0</ele><time>2026-04-02T13:14:33Z</time></trkpt><trkpt lat="43.973773899623644" lon="3.1870516152653905"><ele>764.0</ele><time>2026-04-02T13:14:34Z</time></trkpt><trkpt lat="43.97391175118155" lon="3.1872857627186097"><ele>764.0</ele><time>2026-04-02T13:14:35Z</time></trkpt><trkpt lat="43.97400323816973" lon="3.1875636774827756"><ele>764.3333333333333</ele><time>2026-04-02T13:14:36Z</time></trkpt><trkpt lat="43.974102803390586" lon="3.1877873767285494"><ele>764.6666666666666</ele><time>2026-04-02T13:14:37Z</time></trkpt><trkpt lat="43.97418957000218" lon="3.1879898055517697"><ele>765.0</ele><time>2026-04-02T13:14:38Z</time></trkpt><trkpt lat="43.97423427284183" lon="3.1881982540087375"><ele>765.6666666666666</ele><time>2026-04-02T13:14:39Z</time></trkpt><trkpt lat="43.97421246460526" lon="3.188425363860911"><ele>766.3333333333333</ele><time>2026-04-02T13:14:40Z</time></trkpt><trkpt lat="43.97416505416679" lon="3.188680800871666"><ele>767.0</ele><time>2026-04-02T13:14:41Z</time></trkpt><trkpt lat="43.97413061109475" lon="3.1889397868619462"><ele>765.3333333333333</ele><time>2026-04-02T13:14:42Z</time></trkpt><trkpt lat="43.97411075057766" lon="3.189198993105311"><ele>763.6666666666666</ele><time>2026-04-02T13:14:43Z</time></trkpt><trkpt lat="43.97409000219208" lon="3.189456087615"><ele>762.0</ele><time>2026-04-02T13:14:44Z</time></trkpt><trkpt lat="43.974047809682126" lon="3.1897036461227555"><ele>761.0</ele><time>2026-04-02T13:14:45Z</time></trkpt><trkpt lat="43.97398045107641" lon="3.1899343770543194"><ele>760.0</ele><time>2026-04-02T13:14:46Z</time></trkpt><trkpt lat="43.97391414117144" lon="3.190149888706648"><ele>759.0</ele><time>2026-04-02T13:14:47Z</time></trkpt><trkpt lat="43.97385601365917" lon="3.1903513834621826"><ele>759.0</ele><time>2026-04-02T13:14:48Z</time></trkpt><trkpt lat="43.973807270129534" lon="3.190550949775117"><ele>759.0</ele><time>2026-04-02T13:14:49Z</time></trkpt><trkpt lat="43.97375741228799" lon="3.190743398949612"><ele>759.0</ele><time>2026-04-02T13:14:50Z</time></trkpt><trkpt lat="43.97370976967609" lon="3.1909241987140913"><ele>759.0</ele><time>2026-04-02T13:14:51Z</time></trkpt><trkpt lat="43.97366863750172" lon="3.1910899841240985"><ele>759.8333333333334</ele><time>2026-04-02T13:14:52Z</time></trkpt><trkpt lat="43.973639599406404" lon="3.191239874292918"><ele>760.6666666666666</ele><time>2026-04-02T13:14:53Z</time></trkpt><trkpt lat="43.973617652295104" lon="3.19137045049979"><ele>761.5</ele><time>2026-04-02T13:14:54Z</time></trkpt><trkpt lat="43.973604657514876" lon="3.191465565805788"><ele>762.3333333333333</ele><time>2026-04-02T13:14:55Z</time></trkpt><trkpt lat="43.973592038977465" lon="3.191590225704907"><ele>763.1666666666666</ele><time>2026-04-02T13:14:57Z</time></trkpt><trkpt lat="43.97357813545367" lon="3.1916887332479886"><ele>764.0</ele><time>2026-04-02T13:14:59Z</time></trkpt><trkpt lat="43.97355104632148" lon="3.191771080471898"><ele>764.2</ele><time>2026-04-02T13:15:02Z</time></trkpt><trkpt lat="43.97350637752362" lon="3.1918722988720223"><ele>764.4000000000001</ele><time>2026-04-02T13:15:06Z</time></trkpt><trkpt lat="43.973438899872626" lon="3.1919652754540033"><ele>764.6</ele><time>2026-04-02T13:15:09Z</time></trkpt><trkpt lat="43.97339893090367" lon="3.1920675280307145"><ele>764.8</ele><time>2026-04-02T13:15:11Z</time></trkpt><trkpt lat="43.973373186371546" lon="3.1922272667114546"><ele>765.0</ele><time>2026-04-02T13:15:13Z</time></trkpt><trkpt lat="43.973366874734666" lon="3.1923234082957705"><ele>764.8</ele><time>2026-04-02T13:15:14Z</time></trkpt><trkpt lat="43.97336660828974" lon="3.192430237475711"><ele>764.6</ele><time>2026-04-02T13:15:15Z</time></trkpt><trkpt lat="43.97336220777395" lon="3.1925364651810693"><ele>764.4000000000001</ele><time>2026-04-02T13:15:16Z</time></trkpt><trkpt lat="43.973340784398424" lon="3.192646883062508"><ele>764.2</ele><time>2026-04-02T13:15:17Z</time></trkpt><trkpt lat="43.97333647165202" lon="3.19274622508786"><ele>764.0</ele><time>2026-04-02T13:15:18Z</time></trkpt><trkpt lat="43.97335122941012" lon="3.192946561300904"><ele>762.8571428571429</ele><time>2026-04-02T13:15:20Z</time></trkpt><trkpt lat="43.973345122239" lon="3.1930413903200283"><ele>761.7142857142857</ele><time>2026-04-02T13:15:21Z</time></trkpt><trkpt lat="43.97334421335124" lon="3.1931389698256796"><ele>760.5714285714286</ele><time>2026-04-02T13:15:22Z</time></trkpt><trkpt lat="43.97333484815799" lon="3.193234556359088"><ele>759.4285714285714</ele><time>2026-04-02T13:15:23Z</time></trkpt><trkpt lat="43.97332941554816" lon="3.1933281366067017"><ele>758.2857142857142</ele><time>2026-04-02T13:15:24Z</time></trkpt><trkpt lat="43.973328259519874" lon="3.1934214397276244"><ele>757.1428571428571</ele><time>2026-04-02T13:15:25Z</time></trkpt><trkpt lat="43.97332739579714" lon="3.1935142045696026"><ele>756.0</ele><time>2026-04-02T13:15:26Z</time></trkpt><trkpt lat="43.973327564919764" lon="3.193613059855478"><ele>756.1666666666666</ele><time>2026-04-02T13:15:27Z</time></trkpt><trkpt lat="43.97332832556137" lon="3.193720488279003"><ele>756.3333333333334</ele><time>2026-04-02T13:15:28Z</time></trkpt><trkpt lat="43.97333045252656" lon="3.1938192886796326"><ele>756.5</ele><time>2026-04-02T13:15:29Z</time></trkpt><trkpt lat="43.973332398150454" lon="3.1939265595251367"><ele>756.6666666666667</ele><time>2026-04-02T13:15:30Z</time></trkpt><trkpt lat="43.973335339034534" lon="3.1940416615367897"><ele>756.8333333333334</ele><time>2026-04-02T13:15:31Z</time></trkpt><trkpt lat="43.97336122466731" lon="3.194197525149834"><ele>757.0</ele><time>2026-04-02T13:15:33Z</time></trkpt><trkpt lat="43.97341698883239" lon="3.1943310324566867"><ele>757.0</ele><time>2026-04-02T13:15:35Z</time></trkpt><trkpt lat="43.97349553900981" lon="3.1944569608796654"><ele>757.0</ele><time>2026-04-02T13:15:37Z</time></trkpt><trkpt lat="43.97354259573923" lon="3.194609729292788"><ele>757.0</ele><time>2026-04-02T13:15:39Z</time></trkpt><trkpt lat="43.973498397067594" lon="3.1947017898402175"><ele>757.0</ele><time>2026-04-02T13:15:40Z</time></trkpt><trkpt lat="43.973484189756455" lon="3.194828900031457"><ele>757.0</ele><time>2026-04-02T13:15:41Z</time></trkpt><trkpt lat="43.973467632845505" lon="3.19497562904481"><ele>758.0</ele><time>2026-04-02T13:15:42Z</time></trkpt><trkpt lat="43.97347149061471" lon="3.19510859295821"><ele>759.0</ele><time>2026-04-02T13:15:43Z</time></trkpt><trkpt lat="43.97344002954433" lon="3.1952344224557607"><ele>760.0</ele><time>2026-04-02T13:15:44Z</time></trkpt><trkpt lat="43.97342163414078" lon="3.1953835949866534"><ele>761.0</ele><time>2026-04-02T13:15:45Z</time></trkpt><trkpt lat="43.97341314587995" lon="3.1955473560713705"><ele>762.0</ele><time>2026-04-02T13:15:46Z</time></trkpt><trkpt lat="43.973397747101835" lon="3.1957126418997874"><ele>761.4000000000001</ele><time>2026-04-02T13:15:47Z</time></trkpt><trkpt lat="43.9733689994671" lon="3.195870637386158"><ele>760.8000000000001</ele><time>2026-04-02T13:15:48Z</time></trkpt><trkpt lat="43.97335926404915" lon="3.196019387021145"><ele>760.2</ele><time>2026-04-02T13:15:49Z</time></trkpt><trkpt lat="43.97335307659873" lon="3.1961475775377104"><ele>759.6</ele><time>2026-04-02T13:15:50Z</time></trkpt><trkpt lat="43.973360660336" lon="3.19626139667862"><ele>759.0</ele><time>2026-04-02T13:15:51Z</time></trkpt><trkpt lat="43.973344650132546" lon="3.196353358910778"><ele>759.2</ele><time>2026-04-02T13:15:52Z</time></trkpt><trkpt lat="43.97332925784998" lon="3.1965041500555516"><ele>759.4000000000001</ele><time>2026-04-02T13:15:54Z</time></trkpt><trkpt lat="43.973366076020056" lon="3.196602222917238"><ele>759.6</ele><time>2026-04-02T13:16:03Z</time></trkpt><trkpt lat="43.97336408399844" lon="3.196700007176404"><ele>759.8</ele><time>2026-04-02T13:16:04Z</time></trkpt><trkpt lat="43.973389591932595" lon="3.196809030629498"><ele>760.0</ele><time>2026-04-02T13:16:05Z</time></trkpt><trkpt lat="43.97341642994508" lon="3.1969631138151215"><ele>761.0</ele><time>2026-04-02T13:16:06Z</time></trkpt><trkpt lat="43.97344845138102" lon="3.197132661005381"><ele>762.0</ele><time>2026-04-02T13:16:07Z</time></trkpt><trkpt lat="43.97349475360695" lon="3.197293410709298"><ele>763.0</ele><time>2026-04-02T13:16:08Z</time></trkpt><trkpt lat="43.97352742916509" lon="3.197466583899442"><ele>764.0</ele><time>2026-04-02T13:16:09Z</time></trkpt><trkpt lat="43.97356135546064" lon="3.1976417137511333"><ele>764.0</ele><time>2026-04-02T13:16:10Z</time></trkpt><trkpt lat="43.97359699398219" lon="3.1978198641851097"><ele>764.0</ele><time>2026-04-02T13:16:11Z</time></trkpt><trkpt lat="43.97363416921748" lon="3.1979955424108297"><ele>764.0</ele><time>2026-04-02T13:16:12Z</time></trkpt><trkpt lat="43.97367203842475" lon="3.198187504725503"><ele>764.0</ele><time>2026-04-02T13:16:13Z</time></trkpt><trkpt lat="43.97371433719359" lon="3.198389860030731"><ele>763.0</ele><time>2026-04-02T13:16:14Z</time></trkpt><trkpt lat="43.97376732638385" lon="3.1986075246583496"><ele>762.0</ele><time>2026-04-02T13:16:15Z</time></trkpt><trkpt lat="43.973835087408865" lon="3.198828171734752"><ele>761.0</ele><time>2026-04-02T13:16:16Z</time></trkpt><trkpt lat="43.973908720921834" lon="3.199036877149266"><ele>760.0</ele><time>2026-04-02T13:16:17Z</time></trkpt><trkpt lat="43.97398520654385" lon="3.199250883935577"><ele>759.0</ele><time>2026-04-02T13:16:18Z</time></trkpt><trkpt lat="43.97406396686643" lon="3.1994733497977808"><ele>758.0</ele><time>2026-04-02T13:16:19Z</time></trkpt><trkpt lat="43.974143641903424" lon="3.1997276360688107"><ele>761.6666666666666</ele><time>2026-04-02T13:16:20Z</time></trkpt><trkpt lat="43.974213587256386" lon="3.1999839052396095"><ele>765.3333333333333</ele><time>2026-04-02T13:16:21Z</time></trkpt><trkpt lat="43.97424282752154" lon="3.200252929567521"><ele>769.0</ele><time>2026-04-02T13:16:22Z</time></trkpt><trkpt lat="43.9742457570341" lon="3.200522683332704"><ele>768.6666666666666</ele><time>2026-04-02T13:16:23Z</time></trkpt><trkpt lat="43.97423510949923" lon="3.200791454731612"><ele>768.3333333333333</ele><time>2026-04-02T13:16:24Z</time></trkpt><trkpt lat="43.97423585420948" lon="3.20104528829628"><ele>768.0</ele><time>2026-04-02T13:16:25Z</time></trkpt><trkpt lat="43.974235162507355" lon="3.2012814231427016"><ele>766.6666666666666</ele><time>2026-04-02T13:16:26Z</time></trkpt><trkpt lat="43.974303819030226" lon="3.2015019818497024"><ele>765.3333333333333</ele><time>2026-04-02T13:16:27Z</time></trkpt><trkpt lat="43.97441354899922" lon="3.2016795431006995"><ele>764.0</ele><time>2026-04-02T13:16:28Z</time></trkpt><trkpt lat="43.97455165916624" lon="3.201814942039988"><ele>764.0</ele><time>2026-04-02T13:16:29Z</time></trkpt><trkpt lat="43.974707113438384" lon="3.201908813621929"><ele>764.0</ele><time>2026-04-02T13:16:30Z</time></trkpt><trkpt lat="43.97484689362469" lon="3.202021478984428"><ele>764.0</ele><time>2026-04-02T13:16:31Z</time></trkpt><trkpt lat="43.97495023304546" lon="3.202127601033644"><ele>766.0</ele><time>2026-04-02T13:16:32Z</time></trkpt><trkpt lat="43.975034805083155" lon="3.2022995206081823"><ele>768.0</ele><time>2026-04-02T13:16:33Z</time></trkpt><trkpt lat="43.97507641312866" lon="3.2025189765108233"><ele>770.0</ele><time>2026-04-02T13:16:34Z</time></trkpt><trkpt lat="43.97514958701787" lon="3.2027439780353846"><ele>770.0</ele><time>2026-04-02T13:16:35Z</time></trkpt><trkpt lat="43.97521486875057" lon="3.2029985771864706"><ele>770.0</ele><time>2026-04-02T13:16:36Z</time></trkpt><trkpt lat="43.975313751699886" lon="3.2031861555423125"><ele>770.0</ele><time>2026-04-02T13:16:37Z</time></trkpt><trkpt lat="43.97543288104654" lon="3.2034386774061288"><ele>768.3333333333334</ele><time>2026-04-02T13:16:38Z</time></trkpt><trkpt lat="43.97550121585003" lon="3.2037316611322084"><ele>766.6666666666667</ele><time>2026-04-02T13:16:39Z</time></trkpt><trkpt lat="43.975555121997886" lon="3.204028664952551"><ele>765.0</ele><time>2026-04-02T13:16:40Z</time></trkpt><trkpt lat="43.975576099579705" lon="3.2043252123351884"><ele>765.0</ele><time>2026-04-02T13:16:41Z</time></trkpt><trkpt lat="43.97557601358744" lon="3.204625539382545"><ele>765.0</ele><time>2026-04-02T13:16:42Z</time></trkpt><trkpt lat="43.97557482070422" lon="3.204930811989074"><ele>765.0</ele><time>2026-04-02T13:16:43Z</time></trkpt><trkpt lat="43.97558689697774" lon="3.2052356590844933"><ele>766.0</ele><time>2026-04-02T13:16:44Z</time></trkpt><trkpt lat="43.97561005008546" lon="3.2055504218350923"><ele>767.0</ele><time>2026-04-02T13:16:45Z</time></trkpt><trkpt lat="43.975653849097235" lon="3.205857474181705"><ele>767.0</ele><time>2026-04-02T13:16:46Z</time></trkpt><trkpt lat="43.97568845156927" lon="3.206135198779422"><ele>767.0</ele><time>2026-04-02T13:16:47Z</time></trkpt><trkpt lat="43.975714895496644" lon="3.206369134725326"><ele>767.0</ele><time>2026-04-02T13:16:48Z</time></trkpt><trkpt lat="43.97574951975368" lon="3.2065775284207994"><ele>766.3333333333333</ele><time>2026-04-02T13:16:49Z</time></trkpt><trkpt lat="43.97585233789086" lon="3.2067141007130506"><ele>765.6666666666666</ele><time>2026-04-02T13:16:50Z</time></trkpt><trkpt lat="43.97598396079122" lon="3.20682507602664"><ele>765.0</ele><time>2026-04-02T13:16:51Z</time></trkpt><trkpt lat="43.97615457471412" lon="3.206929885361862"><ele>769.3333333333333</ele><time>2026-04-02T13:16:52Z</time></trkpt><trkpt lat="43.97633673245307" lon="3.2070502585713325"><ele>773.6666666666666</ele><time>2026-04-02T13:16:53Z</time></trkpt><trkpt lat="43.97652754067414" lon="3.20716313270305"><ele>778.0</ele><time>2026-04-02T13:16:54Z</time></trkpt><trkpt lat="43.97673272761547" lon="3.2072584423459043"><ele>778.6666666666666</ele><time>2026-04-02T13:16:55Z</time></trkpt><trkpt lat="43.976896241630556" lon="3.2074076764041037"><ele>779.3333333333333</ele><time>2026-04-02T13:16:56Z</time></trkpt><trkpt lat="43.97705257471802" lon="3.207575559971294"><ele>780.0</ele><time>2026-04-02T13:16:57Z</time></trkpt><trkpt lat="43.97720822327181" lon="3.2077490234461554"><ele>780.0</ele><time>2026-04-02T13:16:58Z</time></trkpt><trkpt lat="43.97735753046158" lon="3.2079271313911297"><ele>780.0</ele><time>2026-04-02T13:16:59Z</time></trkpt><trkpt lat="43.97749069385137" lon="3.208099157477042"><ele>780.0</ele><time>2026-04-02T13:17:00Z</time></trkpt><trkpt lat="43.97761472026237" lon="3.2082680309987643"><ele>788.0</ele><time>2026-04-02T13:17:01Z</time></trkpt><trkpt lat="43.97771280517942" lon="3.2084884736975665"><ele>796.0</ele><time>2026-04-02T13:17:02Z</time></trkpt><trkpt lat="43.97778293431786" lon="3.2087141000692365"><ele>804.0</ele><time>2026-04-02T13:17:03Z</time></trkpt><trkpt lat="43.97781032123896" lon="3.208919747928576"><ele>803.25</ele><time>2026-04-02T13:17:04Z</time></trkpt><trkpt lat="43.97778028998085" lon="3.209105113406836"><ele>802.5</ele><time>2026-04-02T13:17:05Z</time></trkpt><trkpt lat="43.97772121030973" lon="3.209282475380059"><ele>801.75</ele><time>2026-04-02T13:17:06Z</time></trkpt><trkpt lat="43.97767730818848" lon="3.2094893813280327"><ele>801.0</ele><time>2026-04-02T13:17:07Z</time></trkpt><trkpt lat="43.97762615976398" lon="3.2097095191648406"><ele>801.0</ele><time>2026-04-02T13:17:08Z</time></trkpt><trkpt lat="43.97763710888912" lon="3.2099439071463665"><ele>801.0</ele><time>2026-04-02T13:17:09Z</time></trkpt><trkpt lat="43.977678876207186" lon="3.2101878881095534"><ele>801.0</ele><time>2026-04-02T13:17:10Z</time></trkpt><trkpt lat="43.9777332878249" lon="3.2104501149004014"><ele>801.0</ele><time>2026-04-02T13:17:11Z</time></trkpt><trkpt lat="43.97778208806273" lon="3.2106993235297505"><ele>801.0</ele><time>2026-04-02T13:17:12Z</time></trkpt><trkpt lat="43.97782655871113" lon="3.210913444067448"><ele>801.0</ele><time>2026-04-02T13:17:13Z</time></trkpt><trkpt lat="43.97787150457285" lon="3.2111027071359697"><ele>801.0</ele><time>2026-04-02T13:17:14Z</time></trkpt><trkpt lat="43.977926860829626" lon="3.2112544581775913"><ele>801.0</ele><time>2026-04-02T13:17:15Z</time></trkpt><trkpt lat="43.97802569721665" lon="3.2113763844515666"><ele>801.0</ele><time>2026-04-02T13:17:16Z</time></trkpt><trkpt lat="43.978172456625984" lon="3.2114823792176854"><ele>801.0</ele><time>2026-04-02T13:17:17Z</time></trkpt><trkpt lat="43.978317587976605" lon="3.211623129028919"><ele>803.0</ele><time>2026-04-02T13:17:18Z</time></trkpt><trkpt lat="43.97837265785147" lon="3.211822296443923"><ele>805.0</ele><time>2026-04-02T13:17:19Z</time></trkpt><trkpt lat="43.97839438995394" lon="3.2120100778503615"><ele>807.0</ele><time>2026-04-02T13:17:20Z</time></trkpt><trkpt lat="43.97839341664558" lon="3.212200305813575"><ele>809.0</ele><time>2026-04-02T13:17:21Z</time></trkpt><trkpt lat="43.97837323398288" lon="3.2123958885709643"><ele>809.0</ele><time>2026-04-02T13:17:22Z</time></trkpt><trkpt lat="43.97836470874816" lon="3.212600886657258"><ele>809.0</ele><time>2026-04-02T13:17:23Z</time></trkpt><trkpt lat="43.97834425558969" lon="3.2127886381234894"><ele>809.0</ele><time>2026-04-02T13:17:24Z</time></trkpt><trkpt lat="43.97835714052736" lon="3.2129676361958737"><ele>809.0</ele><time>2026-04-02T13:17:25Z</time></trkpt><trkpt lat="43.97841169323575" lon="3.2131256790714753"><ele>806.25</ele><time>2026-04-02T13:17:26Z</time></trkpt><trkpt lat="43.97850090564635" lon="3.213252634588493"><ele>803.5</ele><time>2026-04-02T13:17:27Z</time></trkpt><trkpt lat="43.97861270179534" lon="3.213353340537152"><ele>800.75</ele><time>2026-04-02T13:17:28Z</time></trkpt><trkpt lat="43.97873916106465" lon="3.213449884141998"><ele>798.0</ele><time>2026-04-02T13:17:29Z</time></trkpt><trkpt lat="43.9788659310308" lon="3.213551496990598"><ele>798.0</ele><time>2026-04-02T13:17:30Z</time></trkpt><trkpt lat="43.978987703703375" lon="3.2136565987426966"><ele>798.0</ele><time>2026-04-02T13:17:31Z</time></trkpt><trkpt lat="43.9790812252262" lon="3.213743252054644"><ele>798.0</ele><time>2026-04-02T13:17:32Z</time></trkpt><trkpt lat="43.97917272572578" lon="3.2138021033875357"><ele>798.0</ele><time>2026-04-02T13:17:33Z</time></trkpt><trkpt lat="43.97925468001153" lon="3.213887634992812"><ele>797.25</ele><time>2026-04-02T13:17:34Z</time></trkpt><trkpt lat="43.9793516346489" lon="3.21396577462863"><ele>796.5</ele><time>2026-04-02T13:17:35Z</time></trkpt><trkpt lat="43.979466750917965" lon="3.2140435408387598"><ele>795.75</ele><time>2026-04-02T13:17:36Z</time></trkpt><trkpt lat="43.97956806467375" lon="3.2141466521166056"><ele>795.0</ele><time>2026-04-02T13:17:37Z</time></trkpt><trkpt lat="43.97965959044302" lon="3.2142572828041494"><ele>795.0</ele><time>2026-04-02T13:17:38Z</time></trkpt><trkpt lat="43.979743024014034" lon="3.2143936336368157"><ele>795.0</ele><time>2026-04-02T13:17:39Z</time></trkpt><trkpt lat="43.97983536167599" lon="3.2145188112930105"><ele>795.0</ele><time>2026-04-02T13:17:40Z</time></trkpt><trkpt lat="43.97994449202933" lon="3.214643631163648"><ele>795.0</ele><time>2026-04-02T13:17:41Z</time></trkpt><trkpt lat="43.98004214657606" lon="3.2147922096167996"><ele>791.3333333333333</ele><time>2026-04-02T13:17:42Z</time></trkpt><trkpt lat="43.98014510029396" lon="3.214948045129331"><ele>787.6666666666666</ele><time>2026-04-02T13:17:43Z</time></trkpt><trkpt lat="43.98025217996773" lon="3.2151116252796195"><ele>784.0</ele><time>2026-04-02T13:17:44Z</time></trkpt><trkpt lat="43.98036874242218" lon="3.215246318007688"><ele>784.0</ele><time>2026-04-02T13:17:45Z</time></trkpt><trkpt lat="43.98049318134934" lon="3.2153615267759594"><ele>784.0</ele><time>2026-04-02T13:17:46Z</time></trkpt><trkpt lat="43.98063703387062" lon="3.215429290891147"><ele>784.0</ele><time>2026-04-02T13:17:47Z</time></trkpt><trkpt lat="43.98079472624872" lon="3.2154554391189074"><ele>782.3333333333333</ele><time>2026-04-02T13:17:48Z</time></trkpt><trkpt lat="43.98095709873408" lon="3.2154389590171126"><ele>780.6666666666667</ele><time>2026-04-02T13:17:49Z</time></trkpt><trkpt lat="43.98114490976471" lon="3.21541070242927"><ele>779.0</ele><time>2026-04-02T13:17:50Z</time></trkpt><trkpt lat="43.98133089334539" lon="3.215406541865275"><ele>779.0</ele><time>2026-04-02T13:17:51Z</time></trkpt><trkpt lat="43.98151549994089" lon="3.2153885058312004"><ele>779.0</ele><time>2026-04-02T13:17:52Z</time></trkpt><trkpt lat="43.981705622373404" lon="3.2153775885524483"><ele>779.0</ele><time>2026-04-02T13:17:53Z</time></trkpt><trkpt lat="43.981891818078324" lon="3.2153837342542113"><ele>777.3333333333334</ele><time>2026-04-02T13:17:54Z</time></trkpt><trkpt lat="43.982079685200794" lon="3.2154049244711342"><ele>775.6666666666667</ele><time>2026-04-02T13:17:55Z</time></trkpt><trkpt lat="43.98226812519747" lon="3.215449494467685"><ele>774.0</ele><time>2026-04-02T13:17:56Z</time></trkpt><trkpt lat="43.9824708286582" lon="3.215502382713177"><ele>774.0</ele><time>2026-04-02T13:17:57Z</time></trkpt><trkpt lat="43.982658660869404" lon="3.2155585324338904"><ele>774.0</ele><time>2026-04-02T13:17:58Z</time></trkpt><trkpt lat="43.98283727597403" lon="3.215644547250803"><ele>774.0</ele><time>2026-04-02T13:17:59Z</time></trkpt><trkpt lat="43.983009485555385" lon="3.2157469056364074"><ele>774.0</ele><time>2026-04-02T13:18:00Z</time></trkpt><trkpt lat="43.98317297765852" lon="3.2158528541559823"><ele>774.0</ele><time>2026-04-02T13:18:01Z</time></trkpt><trkpt lat="43.98331532418104" lon="3.2159864418910242"><ele>774.0</ele><time>2026-04-02T13:18:02Z</time></trkpt><trkpt lat="43.98339831385439" lon="3.2161515471370903"><ele>778.0</ele><time>2026-04-02T13:18:03Z</time></trkpt><trkpt lat="43.98345802640168" lon="3.2163463064938487"><ele>782.0</ele><time>2026-04-02T13:18:04Z</time></trkpt><trkpt lat="43.98354071440288" lon="3.216519806256418"><ele>786.0</ele><time>2026-04-02T13:18:05Z</time></trkpt><trkpt lat="43.983598203463764" lon="3.216708613946947"><ele>786.25</ele><time>2026-04-02T13:18:06Z</time></trkpt><trkpt lat="43.98362344921901" lon="3.2169129096423914"><ele>786.5</ele><time>2026-04-02T13:18:07Z</time></trkpt><trkpt lat="43.98359264778448" lon="3.2171162603509145"><ele>786.75</ele><time>2026-04-02T13:18:08Z</time></trkpt><trkpt lat="43.98352351603511" lon="3.2172988357794705"><ele>787.0</ele><time>2026-04-02T13:18:09Z</time></trkpt><trkpt lat="43.983481659799295" lon="3.217482177658523"><ele>787.0</ele><time>2026-04-02T13:18:10Z</time></trkpt><trkpt lat="43.98348501041037" lon="3.217659574307848"><ele>787.0</ele><time>2026-04-02T13:18:11Z</time></trkpt><trkpt lat="43.983519669048746" lon="3.217838473415777"><ele>787.0</ele><time>2026-04-02T13:18:12Z</time></trkpt><trkpt lat="43.98358783821098" lon="3.218018922866529"><ele>787.0</ele><time>2026-04-02T13:18:13Z</time></trkpt><trkpt lat="43.983688993137704" lon="3.2181763208601226"><ele>785.3333333333333</ele><time>2026-04-02T13:18:14Z</time></trkpt><trkpt lat="43.98380158946375" lon="3.2183139444345312"><ele>783.6666666666667</ele><time>2026-04-02T13:18:15Z</time></trkpt><trkpt lat="43.983904313216186" lon="3.2184693415749686"><ele>782.0</ele><time>2026-04-02T13:18:16Z</time></trkpt><trkpt lat="43.983980110096674" lon="3.218661481151193"><ele>782.0</ele><time>2026-04-02T13:18:17Z</time></trkpt><trkpt lat="43.98397149888717" lon="3.218881208560042"><ele>782.0</ele><time>2026-04-02T13:18:18Z</time></trkpt><trkpt lat="43.98400821827029" lon="3.2191049697949876"><ele>782.0</ele><time>2026-04-02T13:18:19Z</time></trkpt><trkpt lat="43.9840331141901" lon="3.2193036264332036"><ele>780.6666666666667</ele><time>2026-04-02T13:18:20Z</time></trkpt><trkpt lat="43.984127892982116" lon="3.2194648711030034"><ele>779.3333333333333</ele><time>2026-04-02T13:18:21Z</time></trkpt><trkpt lat="43.98425401811099" lon="3.2196165798542125"><ele>778.0</ele><time>2026-04-02T13:18:22Z</time></trkpt><trkpt lat="43.98437508215657" lon="3.219763422448388"><ele>779.0</ele><time>2026-04-02T13:18:23Z</time></trkpt><trkpt lat="43.984522207290105" lon="3.2199105420192895"><ele>780.0</ele><time>2026-04-02T13:18:24Z</time></trkpt><trkpt lat="43.984686738259754" lon="3.220011789376373"><ele>781.0</ele><time>2026-04-02T13:18:25Z</time></trkpt><trkpt lat="43.984856383105544" lon="3.220102235710179"><ele>781.6666666666666</ele><time>2026-04-02T13:18:26Z</time></trkpt><trkpt lat="43.98501743551433" lon="3.220183134207308"><ele>782.3333333333333</ele><time>2026-04-02T13:18:27Z</time></trkpt><trkpt lat="43.985176035528674" lon="3.2202673579892656"><ele>783.0</ele><time>2026-04-02T13:18:28Z</time></trkpt><trkpt lat="43.985315080845936" lon="3.220364762117269"><ele>783.0</ele><time>2026-04-02T13:18:29Z</time></trkpt><trkpt lat="43.985447458044185" lon="3.2205118007746987"><ele>783.0</ele><time>2026-04-02T13:18:30Z</time></trkpt><trkpt lat="43.98555450626346" lon="3.220697935726262"><ele>783.0</ele><time>2026-04-02T13:18:31Z</time></trkpt><trkpt lat="43.985630519891096" lon="3.2209261487110497"><ele>783.3333333333333</ele><time>2026-04-02T13:18:32Z</time></trkpt><trkpt lat="43.985715636238034" lon="3.2211262972939863"><ele>783.6666666666666</ele><time>2026-04-02T13:18:33Z</time></trkpt><trkpt lat="43.98580784819315" lon="3.2213130148618534"><ele>784.0</ele><time>2026-04-02T13:18:34Z</time></trkpt><trkpt lat="43.9859252656469" lon="3.2214568638584518"><ele>783.3333333333333</ele><time>2026-04-02T13:18:35Z</time></trkpt><trkpt lat="43.986059941572925" lon="3.2215846222509508"><ele>782.6666666666667</ele><time>2026-04-02T13:18:36Z</time></trkpt><trkpt lat="43.986210225777135" lon="3.2217106429725035"><ele>782.0</ele><time>2026-04-02T13:18:37Z</time></trkpt><trkpt lat="43.98636554701005" lon="3.221819464492164"><ele>782.0</ele><time>2026-04-02T13:18:38Z</time></trkpt><trkpt lat="43.986520671788725" lon="3.2219361508904245"><ele>782.0</ele><time>2026-04-02T13:18:39Z</time></trkpt><trkpt lat="43.98667299667035" lon="3.2220659867973134"><ele>782.0</ele><time>2026-04-02T13:18:40Z</time></trkpt><trkpt lat="43.986809647422064" lon="3.2222025221525614"><ele>783.3333333333334</ele><time>2026-04-02T13:18:41Z</time></trkpt><trkpt lat="43.986961956763196" lon="3.222351817925475"><ele>784.6666666666667</ele><time>2026-04-02T13:18:42Z</time></trkpt><trkpt lat="43.98711666685798" lon="3.2225097565363257"><ele>786.0</ele><time>2026-04-02T13:18:43Z</time></trkpt><trkpt lat="43.98728488445241" lon="3.222672106667298"><ele>786.0</ele><time>2026-04-02T13:18:44Z</time></trkpt><trkpt lat="43.98745344329821" lon="3.2228355049418047"><ele>786.0</ele><time>2026-04-02T13:18:45Z</time></trkpt><trkpt lat="43.987612318193264" lon="3.2229914048988513"><ele>786.0</ele><time>2026-04-02T13:18:46Z</time></trkpt><trkpt lat="43.987757547405685" lon="3.223130119396253"><ele>785.0</ele><time>2026-04-02T13:18:47Z</time></trkpt><trkpt lat="43.98788612353108" lon="3.223266903782013"><ele>784.0</ele><time>2026-04-02T13:18:48Z</time></trkpt><trkpt lat="43.98800349202692" lon="3.223432451990678"><ele>783.0</ele><time>2026-04-02T13:18:49Z</time></trkpt><trkpt lat="43.98810844842773" lon="3.2236240840521515"><ele>783.0</ele><time>2026-04-02T13:18:50Z</time></trkpt><trkpt lat="43.988210564434524" lon="3.2238309102268183"><ele>783.0</ele><time>2026-04-02T13:18:51Z</time></trkpt><trkpt lat="43.988317531287194" lon="3.224022306530059"><ele>783.0</ele><time>2026-04-02T13:18:52Z</time></trkpt><trkpt lat="43.98844654387608" lon="3.224194761953459"><ele>785.0</ele><time>2026-04-02T13:18:53Z</time></trkpt><trkpt lat="43.988586341981076" lon="3.2243645096862794"><ele>787.0</ele><time>2026-04-02T13:18:54Z</time></trkpt><trkpt lat="43.988728361336555" lon="3.2245261496940607"><ele>789.0</ele><time>2026-04-02T13:18:55Z</time></trkpt><trkpt lat="43.98885583912555" lon="3.224674545748846"><ele>789.0</ele><time>2026-04-02T13:18:56Z</time></trkpt><trkpt lat="43.98898481042996" lon="3.2248069760070375"><ele>789.0</ele><time>2026-04-02T13:18:57Z</time></trkpt><trkpt lat="43.98912516981993" lon="3.2249153635685444"><ele>789.0</ele><time>2026-04-02T13:18:58Z</time></trkpt><trkpt lat="43.989280500221376" lon="3.225001911438936"><ele>790.3333333333333</ele><time>2026-04-02T13:18:59Z</time></trkpt><trkpt lat="43.98944572065106" lon="3.2250798261841758"><ele>791.6666666666666</ele><time>2026-04-02T13:19:00Z</time></trkpt><trkpt lat="43.98961029681154" lon="3.225171970377338"><ele>793.0</ele><time>2026-04-02T13:19:01Z</time></trkpt><trkpt lat="43.98978188363767" lon="3.2252654835318615"><ele>793.0</ele><time>2026-04-02T13:19:02Z</time></trkpt><trkpt lat="43.98996014222438" lon="3.2253460218981234"><ele>793.0</ele><time>2026-04-02T13:19:03Z</time></trkpt><trkpt lat="43.990143781529724" lon="3.225406334090083"><ele>793.0</ele><time>2026-04-02T13:19:04Z</time></trkpt><trkpt lat="43.99032265667083" lon="3.225458434640472"><ele>794.0</ele><time>2026-04-02T13:19:05Z</time></trkpt><trkpt lat="43.99049191722627" lon="3.2255173700897224"><ele>795.0</ele><time>2026-04-02T13:19:06Z</time></trkpt><trkpt lat="43.99064721890054" lon="3.225558064457574"><ele>796.0</ele><time>2026-04-02T13:19:07Z</time></trkpt><trkpt lat="43.99080858428079" lon="3.225552658142201"><ele>798.0</ele><time>2026-04-02T13:19:08Z</time></trkpt><trkpt lat="43.990973791881274" lon="3.22547442714296"><ele>800.0</ele><time>2026-04-02T13:19:09Z</time></trkpt><trkpt lat="43.991148090737745" lon="3.225390169302316"><ele>802.0</ele><time>2026-04-02T13:19:10Z</time></trkpt><trkpt lat="43.991333102573954" lon="3.225370735375924"><ele>802.0</ele><time>2026-04-02T13:19:11Z</time></trkpt><trkpt lat="43.99151623020715" lon="3.2254057914662613"><ele>802.0</ele><time>2026-04-02T13:19:12Z</time></trkpt><trkpt lat="43.99170557361993" lon="3.2254406196340653"><ele>802.0</ele><time>2026-04-02T13:19:13Z</time></trkpt><trkpt lat="43.99188448636884" lon="3.2254833742888622"><ele>803.3333333333333</ele><time>2026-04-02T13:19:14Z</time></trkpt><trkpt lat="43.99207482369048" lon="3.2255139393848453"><ele>804.6666666666667</ele><time>2026-04-02T13:19:15Z</time></trkpt><trkpt lat="43.99224981328009" lon="3.2255629209114587"><ele>806.0</ele><time>2026-04-02T13:19:16Z</time></trkpt><trkpt lat="43.992425945122314" lon="3.2256293002164913"><ele>805.6666666666667</ele><time>2026-04-02T13:19:17Z</time></trkpt><trkpt lat="43.99259135628898" lon="3.2257012269679914"><ele>805.3333333333333</ele><time>2026-04-02T13:19:18Z</time></trkpt><trkpt lat="43.992764026589676" lon="3.225772310829112"><ele>805.0</ele><time>2026-04-02T13:19:19Z</time></trkpt><trkpt lat="43.99294959033507" lon="3.2258425672682067"><ele>805.0</ele><time>2026-04-02T13:19:20Z</time></trkpt><trkpt lat="43.993145386670555" lon="3.2259113296063644"><ele>805.0</ele><time>2026-04-02T13:19:21Z</time></trkpt><trkpt lat="43.99333541784703" lon="3.225986004389574"><ele>805.0</ele><time>2026-04-02T13:19:22Z</time></trkpt><trkpt lat="43.99352557924922" lon="3.226060850056539"><ele>804.0</ele><time>2026-04-02T13:19:23Z</time></trkpt><trkpt lat="43.99371553595714" lon="3.226132336834851"><ele>803.0</ele><time>2026-04-02T13:19:24Z</time></trkpt><trkpt lat="43.993925053206894" lon="3.226211828394791"><ele>802.0</ele><time>2026-04-02T13:19:25Z</time></trkpt><trkpt lat="43.994142916087384" lon="3.2262912006652247"><ele>801.6666666666666</ele><time>2026-04-02T13:19:26Z</time></trkpt><trkpt lat="43.99435160354078" lon="3.2263649897849938"><ele>801.3333333333333</ele><time>2026-04-02T13:19:27Z</time></trkpt><trkpt lat="43.9945646565523" lon="3.2264486138240245"><ele>801.0</ele><time>2026-04-02T13:19:28Z</time></trkpt><trkpt lat="43.994773562155316" lon="3.2265304293592547"><ele>801.0</ele><time>2026-04-02T13:19:29Z</time></trkpt><trkpt lat="43.994989098050176" lon="3.226603543279884"><ele>801.0</ele><time>2026-04-02T13:19:30Z</time></trkpt><trkpt lat="43.99519894289532" lon="3.2266654996034707"><ele>801.0</ele><time>2026-04-02T13:19:31Z</time></trkpt><trkpt lat="43.99540312518884" lon="3.2267194037851006"><ele>801.3333333333333</ele><time>2026-04-02T13:19:32Z</time></trkpt><trkpt lat="43.995611786177236" lon="3.2267634464831674"><ele>801.6666666666666</ele><time>2026-04-02T13:19:33Z</time></trkpt><trkpt lat="43.99581516056138" lon="3.226798477064154"><ele>802.0</ele><time>2026-04-02T13:19:34Z</time></trkpt><trkpt lat="43.99601239641867" lon="3.2268320659856404"><ele>802.6666666666666</ele><time>2026-04-02T13:19:35Z</time></trkpt><trkpt lat="43.99620795179991" lon="3.2268637892299927"><ele>803.3333333333333</ele><time>2026-04-02T13:19:36Z</time></trkpt><trkpt lat="43.996403020315284" lon="3.2268890351263537"><ele>804.0</ele><time>2026-04-02T13:19:37Z</time></trkpt><trkpt lat="43.99659111871445" lon="3.226911449921782"><ele>805.3333333333333</ele><time>2026-04-02T13:19:38Z</time></trkpt><trkpt lat="43.99678114731234" lon="3.2269279165036235"><ele>806.6666666666666</ele><time>2026-04-02T13:19:39Z</time></trkpt><trkpt lat="43.996968011698876" lon="3.226937421969561"><ele>808.0</ele><time>2026-04-02T13:19:40Z</time></trkpt><trkpt lat="43.99715669836875" lon="3.226944221826472"><ele>808.0</ele><time>2026-04-02T13:19:41Z</time></trkpt><trkpt lat="43.99735485390129" lon="3.2269502084576946"><ele>808.0</ele><time>2026-04-02T13:19:42Z</time></trkpt><trkpt lat="43.997546512921204" lon="3.226966119427969"><ele>808.0</ele><time>2026-04-02T13:19:43Z</time></trkpt><trkpt lat="43.997739332181254" lon="3.2269823882742448"><ele>809.3333333333333</ele><time>2026-04-02T13:19:44Z</time></trkpt><trkpt lat="43.99793314578572" lon="3.226996918782909"><ele>810.6666666666667</ele><time>2026-04-02T13:19:45Z</time></trkpt><trkpt lat="43.99813357110739" lon="3.227011289271753"><ele>812.0</ele><time>2026-04-02T13:19:46Z</time></trkpt><trkpt lat="43.998325708922486" lon="3.2270250367476736"><ele>813.0</ele><time>2026-04-02T13:19:47Z</time></trkpt><trkpt lat="43.998508060432314" lon="3.227032162061639"><ele>814.0</ele><time>2026-04-02T13:19:48Z</time></trkpt><trkpt lat="43.998673887899116" lon="3.2270419474650005"><ele>815.0</ele><time>2026-04-02T13:19:49Z</time></trkpt><trkpt lat="43.99883924658706" lon="3.2270589448260316"><ele>815.0</ele><time>2026-04-02T13:19:50Z</time></trkpt><trkpt lat="43.999003582235616" lon="3.2270723526350045"><ele>815.0</ele><time>2026-04-02T13:19:51Z</time></trkpt><trkpt lat="43.9991444796876" lon="3.227086012639407"><ele>815.0</ele><time>2026-04-02T13:19:52Z</time></trkpt><trkpt lat="43.99924775011614" lon="3.2271050094073654"><ele>815.0</ele><time>2026-04-02T13:19:53Z</time></trkpt><trkpt lat="43.99935555570422" lon="3.22715494923309"><ele>814.6666666666667</ele><time>2026-04-02T13:19:54Z</time></trkpt><trkpt lat="43.99947399308239" lon="3.227254664044035"><ele>814.3333333333333</ele><time>2026-04-02T13:19:55Z</time></trkpt><trkpt lat="43.999614258358285" lon="3.2273862403362688"><ele>814.0</ele><time>2026-04-02T13:19:56Z</time></trkpt><trkpt lat="43.999782558240184" lon="3.227517954525901"><ele>815.0</ele><time>2026-04-02T13:19:57Z</time></trkpt><trkpt lat="43.999973433808265" lon="3.2276464233368145"><ele>816.0</ele><time>2026-04-02T13:19:58Z</time></trkpt><trkpt lat="44.000164128472484" lon="3.227764231094554"><ele>817.0</ele><time>2026-04-02T13:19:59Z</time></trkpt><trkpt lat="44.00034716106046" lon="3.2278692059768015"><ele>817.0</ele><time>2026-04-02T13:20:00Z</time></trkpt><trkpt lat="44.0005328338075" lon="3.227978636874498"><ele>817.0</ele><time>2026-04-02T13:20:01Z</time></trkpt><trkpt lat="44.000724422561" lon="3.2280819128276845"><ele>817.0</ele><time>2026-04-02T13:20:02Z</time></trkpt><trkpt lat="44.000921225035064" lon="3.228172689032377"><ele>814.3333333333333</ele><time>2026-04-02T13:20:03Z</time></trkpt><trkpt lat="44.00112646454327" lon="3.2282578277014222"><ele>811.6666666666667</ele><time>2026-04-02T13:20:04Z</time></trkpt><trkpt lat="44.00132858938205" lon="3.2283735826975235"><ele>809.0</ele><time>2026-04-02T13:20:05Z</time></trkpt><trkpt lat="44.00151537575251" lon="3.2285670920211857"><ele>808.0</ele><time>2026-04-02T13:20:06Z</time></trkpt><trkpt lat="44.001715796455656" lon="3.228756450388771"><ele>807.0</ele><time>2026-04-02T13:20:07Z</time></trkpt><trkpt lat="44.00188989356054" lon="3.2289803229988485"><ele>807.0</ele><time>2026-04-02T13:20:08Z</time></trkpt><trkpt lat="44.002062302363896" lon="3.229197726947884"><ele>807.0</ele><time>2026-04-02T13:20:09Z</time></trkpt><trkpt lat="44.00222204641868" lon="3.229394269933764"><ele>807.0</ele><time>2026-04-02T13:20:10Z</time></trkpt><trkpt lat="44.00238459405674" lon="3.229586501774117"><ele>808.6666666666667</ele><time>2026-04-02T13:20:11Z</time></trkpt><trkpt lat="44.00253641192162" lon="3.2297566982292394"><ele>810.3333333333334</ele><time>2026-04-02T13:20:12Z</time></trkpt><trkpt lat="44.00267367158824" lon="3.22992790929585"><ele>812.0</ele><time>2026-04-02T13:20:13Z</time></trkpt><trkpt lat="44.002798965160665" lon="3.230091964556582"><ele>812.0</ele><time>2026-04-02T13:20:14Z</time></trkpt><trkpt lat="44.00292411063372" lon="3.2302739200394086"><ele>812.0</ele><time>2026-04-02T13:20:15Z</time></trkpt><trkpt lat="44.003033423551955" lon="3.230472027004124"><ele>812.0</ele><time>2026-04-02T13:20:16Z</time></trkpt><trkpt lat="44.00314131221382" lon="3.230684773379887"><ele>811.6666666666667</ele><time>2026-04-02T13:20:17Z</time></trkpt><trkpt lat="44.00323063501465" lon="3.230891385072272"><ele>811.3333333333333</ele><time>2026-04-02T13:20:18Z</time></trkpt><trkpt lat="44.0033129274176" lon="3.231107301549689"><ele>811.0</ele><time>2026-04-02T13:20:19Z</time></trkpt><trkpt lat="44.00339793828449" lon="3.231359491957101"><ele>811.3333333333333</ele><time>2026-04-02T13:20:20Z</time></trkpt><trkpt lat="44.003474021726376" lon="3.2316323885267932"><ele>811.6666666666667</ele><time>2026-04-02T13:20:21Z</time></trkpt><trkpt lat="44.003563781072266" lon="3.2319108331255584"><ele>812.0</ele><time>2026-04-02T13:20:22Z</time></trkpt><trkpt lat="44.00368200994411" lon="3.2321755603602558"><ele>808.5</ele><time>2026-04-02T13:20:23Z</time></trkpt><trkpt lat="44.00382557835199" lon="3.232433930637054"><ele>805.0</ele><time>2026-04-02T13:20:24Z</time></trkpt><trkpt lat="44.00396851224005" lon="3.2326877782553507"><ele>805.0</ele><time>2026-04-02T13:20:25Z</time></trkpt><trkpt lat="44.00410964079709" lon="3.2329398092106234"><ele>805.0</ele><time>2026-04-02T13:20:26Z</time></trkpt><trkpt lat="44.00425365560333" lon="3.2331952683160154"><ele>807.0</ele><time>2026-04-02T13:20:27Z</time></trkpt><trkpt lat="44.00439063295683" lon="3.233435168202982"><ele>809.0</ele><time>2026-04-02T13:20:28Z</time></trkpt><trkpt lat="44.0045378983016" lon="3.2336854271557582"><ele>809.0</ele><time>2026-04-02T13:20:29Z</time></trkpt><trkpt lat="44.00468398523093" lon="3.2339273728702667"><ele>809.0</ele><time>2026-04-02T13:20:30Z</time></trkpt><trkpt lat="44.004826459901224" lon="3.2341532010004226"><ele>809.0</ele><time>2026-04-02T13:20:31Z</time></trkpt><trkpt lat="44.004966025685334" lon="3.2343793680332045"><ele>812.0</ele><time>2026-04-02T13:20:32Z</time></trkpt><trkpt lat="44.00509788571291" lon="3.234602371344429"><ele>815.0</ele><time>2026-04-02T13:20:33Z</time></trkpt><trkpt lat="44.00520761021673" lon="3.2348027835166873"><ele>818.0</ele><time>2026-04-02T13:20:34Z</time></trkpt><trkpt lat="44.00529844655103" lon="3.2350112669137836"><ele>818.0</ele><time>2026-04-02T13:20:35Z</time></trkpt><trkpt lat="44.00535554235865" lon="3.2352624423435827"><ele>818.0</ele><time>2026-04-02T13:20:36Z</time></trkpt><trkpt lat="44.005429317293945" lon="3.2355276355093605"><ele>818.0</ele><time>2026-04-02T13:20:37Z</time></trkpt><trkpt lat="44.00548581891536" lon="3.2357871649645285"><ele>816.6666666666667</ele><time>2026-04-02T13:20:38Z</time></trkpt><trkpt lat="44.00554328204818" lon="3.2360014957693926"><ele>815.3333333333333</ele><time>2026-04-02T13:20:39Z</time></trkpt><trkpt lat="44.005608006366096" lon="3.2361943373307476"><ele>814.0</ele><time>2026-04-02T13:20:40Z</time></trkpt><trkpt lat="44.00570060151977" lon="3.2363703905548187"><ele>813.3333333333333</ele><time>2026-04-02T13:20:41Z</time></trkpt><trkpt lat="44.00582247855827" lon="3.2365420358028114"><ele>812.6666666666667</ele><time>2026-04-02T13:20:42Z</time></trkpt><trkpt lat="44.005960678689064" lon="3.236711948988093"><ele>812.0</ele><time>2026-04-02T13:20:43Z</time></trkpt><trkpt lat="44.006102814199096" lon="3.236892306720769"><ele>814.0</ele><time>2026-04-02T13:20:44Z</time></trkpt><trkpt lat="44.006239251478746" lon="3.237083374357863"><ele>816.0</ele><time>2026-04-02T13:20:45Z</time></trkpt><trkpt lat="44.00637083259865" lon="3.2372801332058985"><ele>818.0</ele><time>2026-04-02T13:20:46Z</time></trkpt><trkpt lat="44.00646577841448" lon="3.237512054130062"><ele>818.0</ele><time>2026-04-02T13:20:47Z</time></trkpt><trkpt lat="44.006558897378184" lon="3.237739832517786"><ele>818.0</ele><time>2026-04-02T13:20:48Z</time></trkpt><trkpt lat="44.00664636520469" lon="3.237974645489407"><ele>818.0</ele><time>2026-04-02T13:20:49Z</time></trkpt><trkpt lat="44.00675917820377" lon="3.2381728739480917"><ele>821.0</ele><time>2026-04-02T13:20:50Z</time></trkpt><trkpt lat="44.006907276926796" lon="3.2383442895859837"><ele>824.0</ele><time>2026-04-02T13:20:51Z</time></trkpt><trkpt lat="44.00706513845119" lon="3.2384935891437765"><ele>827.0</ele><time>2026-04-02T13:20:52Z</time></trkpt><trkpt lat="44.00721447381835" lon="3.238673196660887"><ele>827.0</ele><time>2026-04-02T13:20:53Z</time></trkpt><trkpt lat="44.007337100395176" lon="3.2388942783608887"><ele>827.0</ele><time>2026-04-02T13:20:54Z</time></trkpt><trkpt lat="44.007441231803455" lon="3.239152083179908"><ele>827.0</ele><time>2026-04-02T13:20:55Z</time></trkpt><trkpt lat="44.00752517477035" lon="3.239394538804915"><ele>828.6666666666667</ele><time>2026-04-02T13:20:56Z</time></trkpt><trkpt lat="44.00760943180666" lon="3.2396133293143285"><ele>830.3333333333333</ele><time>2026-04-02T13:20:57Z</time></trkpt><trkpt lat="44.00770675300996" lon="3.239777158617018"><ele>832.0</ele><time>2026-04-02T13:20:58Z</time></trkpt><trkpt lat="44.007825560375686" lon="3.2399167775251194"><ele>832.0</ele><time>2026-04-02T13:20:59Z</time></trkpt><trkpt lat="44.00794141388376" lon="3.2400858366072205"><ele>832.0</ele><time>2026-04-02T13:21:00Z</time></trkpt><trkpt lat="44.00819571457442" lon="3.240085052189433"><ele>832.0</ele><time>2026-04-02T13:21:01Z</time></trkpt><trkpt lat="44.00839053975464" lon="3.2401801547997633"><ele>834.0</ele><time>2026-04-02T13:21:02Z</time></trkpt><trkpt lat="44.008593729794185" lon="3.2402830195673595"><ele>836.0</ele><time>2026-04-02T13:21:03Z</time></trkpt><trkpt lat="44.008800205857625" lon="3.240390758149732"><ele>838.0</ele><time>2026-04-02T13:21:04Z</time></trkpt><trkpt lat="44.009012581322565" lon="3.2404989477559845"><ele>838.0</ele><time>2026-04-02T13:21:05Z</time></trkpt><trkpt lat="44.00922638721344" lon="3.240591479798159"><ele>838.0</ele><time>2026-04-02T13:21:06Z</time></trkpt><trkpt lat="44.009443210518505" lon="3.2406630284200064"><ele>838.0</ele><time>2026-04-02T13:21:07Z</time></trkpt><trkpt lat="44.00966252090289" lon="3.2407256664454818"><ele>838.0</ele><time>2026-04-02T13:21:08Z</time></trkpt><trkpt lat="44.00988675997625" lon="3.240789831206363"><ele>838.0</ele><time>2026-04-02T13:21:09Z</time></trkpt><trkpt lat="44.010105567986976" lon="3.2408585762175615"><ele>837.3333333333333</ele><time>2026-04-02T13:21:10Z</time></trkpt><trkpt lat="44.01032537734441" lon="3.2409380099098573"><ele>836.6666666666667</ele><time>2026-04-02T13:21:11Z</time></trkpt><trkpt lat="44.010533746763535" lon="3.241033809314791"><ele>836.0</ele><time>2026-04-02T13:21:12Z</time></trkpt><trkpt lat="44.01075397334412" lon="3.24115145941741"><ele>836.3333333333334</ele><time>2026-04-02T13:21:13Z</time></trkpt><trkpt lat="44.0109573480735" lon="3.2412486363068735"><ele>836.6666666666667</ele><time>2026-04-02T13:21:14Z</time></trkpt><trkpt lat="44.01116904420732" lon="3.2413440711552433"><ele>837.0</ele><time>2026-04-02T13:21:15Z</time></trkpt><trkpt lat="44.01137072008395" lon="3.24145429735615"><ele>837.0</ele><time>2026-04-02T13:21:16Z</time></trkpt><trkpt lat="44.01156711766368" lon="3.2415922402182655"><ele>837.0</ele><time>2026-04-02T13:21:17Z</time></trkpt><trkpt lat="44.01175277783408" lon="3.2417545497567004"><ele>837.0</ele><time>2026-04-02T13:21:18Z</time></trkpt><trkpt lat="44.011925366549534" lon="3.2419128819144096"><ele>837.0</ele><time>2026-04-02T13:21:19Z</time></trkpt><trkpt lat="44.01209584499644" lon="3.2420590081355467"><ele>837.0</ele><time>2026-04-02T13:21:20Z</time></trkpt><trkpt lat="44.01228052858751" lon="3.2421867985663484"><ele>837.0</ele><time>2026-04-02T13:21:21Z</time></trkpt><trkpt lat="44.01247791298357" lon="3.2422592184327836"><ele>835.3333333333333</ele><time>2026-04-02T13:21:22Z</time></trkpt><trkpt lat="44.01267426463368" lon="3.24227067095537"><ele>833.6666666666666</ele><time>2026-04-02T13:21:23Z</time></trkpt><trkpt lat="44.012869501838864" lon="3.242290592786149"><ele>832.0</ele><time>2026-04-02T13:21:24Z</time></trkpt><trkpt lat="44.01305232641894" lon="3.2423865972186627"><ele>832.0</ele><time>2026-04-02T13:21:25Z</time></trkpt><trkpt lat="44.01321746269311" lon="3.2425508551878686"><ele>832.0</ele><time>2026-04-02T13:21:26Z</time></trkpt><trkpt lat="44.01337267779408" lon="3.2427256234864297"><ele>832.0</ele><time>2026-04-02T13:21:27Z</time></trkpt><trkpt lat="44.013548503566845" lon="3.2428662375631525"><ele>831.3333333333333</ele><time>2026-04-02T13:21:28Z</time></trkpt><trkpt lat="44.01374080759123" lon="3.2429729803371887"><ele>830.6666666666667</ele><time>2026-04-02T13:21:29Z</time></trkpt><trkpt lat="44.013946494220235" lon="3.243063848960577"><ele>830.0</ele><time>2026-04-02T13:21:30Z</time></trkpt><trkpt lat="44.01416587491787" lon="3.24311892652267"><ele>829.0</ele><time>2026-04-02T13:21:31Z</time></trkpt><trkpt lat="44.01439300528493" lon="3.243138426766316"><ele>828.0</ele><time>2026-04-02T13:21:32Z</time></trkpt><trkpt lat="44.01462319605921" lon="3.243126163117078"><ele>828.0</ele><time>2026-04-02T13:21:33Z</time></trkpt><trkpt lat="44.0148686803594" lon="3.2431091539178367"><ele>828.0</ele><time>2026-04-02T13:21:34Z</time></trkpt><trkpt lat="44.015096332406884" lon="3.2431173070542414"><ele>826.0</ele><time>2026-04-02T13:21:35Z</time></trkpt><trkpt lat="44.01532187560309" lon="3.243133424625317"><ele>824.0</ele><time>2026-04-02T13:21:36Z</time></trkpt><trkpt lat="44.015548230496236" lon="3.2431412744744983"><ele>824.0</ele><time>2026-04-02T13:21:37Z</time></trkpt><trkpt lat="44.015777600942855" lon="3.2431372854484235"><ele>824.0</ele><time>2026-04-02T13:21:38Z</time></trkpt><trkpt lat="44.01599930231764" lon="3.2431096190423525"><ele>823.3333333333334</ele><time>2026-04-02T13:21:39Z</time></trkpt><trkpt lat="44.01620991041822" lon="3.2430639905469794"><ele>822.6666666666667</ele><time>2026-04-02T13:21:40Z</time></trkpt><trkpt lat="44.01643264424792" lon="3.2430128777928777"><ele>822.0</ele><time>2026-04-02T13:21:41Z</time></trkpt><trkpt lat="44.01667227421586" lon="3.242962614619659"><ele>821.0</ele><time>2026-04-02T13:21:42Z</time></trkpt><trkpt lat="44.01693157031788" lon="3.242914320992995"><ele>820.0</ele><time>2026-04-02T13:21:43Z</time></trkpt><trkpt lat="44.017163298324945" lon="3.2428811130861708"><ele>820.0</ele><time>2026-04-02T13:21:44Z</time></trkpt><trkpt lat="44.017393545754715" lon="3.2428525420308683"><ele>820.0</ele><time>2026-04-02T13:21:45Z</time></trkpt><trkpt lat="44.017637464461686" lon="3.2428519086516023"><ele>818.0</ele><time>2026-04-02T13:21:46Z</time></trkpt><trkpt lat="44.01788397116419" lon="3.2428737788172617"><ele>816.0</ele><time>2026-04-02T13:21:47Z</time></trkpt><trkpt lat="44.018127658533714" lon="3.242905022938694"><ele>813.5</ele><time>2026-04-02T13:21:48Z</time></trkpt><trkpt lat="44.018366848572626" lon="3.2429318423564824"><ele>811.0</ele><time>2026-04-02T13:21:49Z</time></trkpt><trkpt lat="44.018608459433544" lon="3.2429569411920793"><ele>811.0</ele><time>2026-04-02T13:21:50Z</time></trkpt><trkpt lat="44.01884907615162" lon="3.2429736746255746"><ele>811.0</ele><time>2026-04-02T13:21:51Z</time></trkpt><trkpt lat="44.01908864557911" lon="3.2429911035898877"><ele>810.3333333333333</ele><time>2026-04-02T13:21:52Z</time></trkpt><trkpt lat="44.01931081152563" lon="3.243013895347766"><ele>809.6666666666667</ele><time>2026-04-02T13:21:53Z</time></trkpt><trkpt lat="44.01951521720732" lon="3.243021941998561"><ele>809.0</ele><time>2026-04-02T13:21:54Z</time></trkpt><trkpt lat="44.019706333620555" lon="3.2429969909384773"><ele>809.0</ele><time>2026-04-02T13:21:55Z</time></trkpt><trkpt lat="44.01991001836334" lon="3.2429311708718997"><ele>809.0</ele><time>2026-04-02T13:21:56Z</time></trkpt><trkpt lat="44.02011040635161" lon="3.242822652218322"><ele>809.0</ele><time>2026-04-02T13:21:57Z</time></trkpt><trkpt lat="44.02030758671083" lon="3.242677465154448"><ele>808.6666666666667</ele><time>2026-04-02T13:21:58Z</time></trkpt><trkpt lat="44.02047608510733" lon="3.242537155844304"><ele>808.3333333333333</ele><time>2026-04-02T13:21:59Z</time></trkpt><trkpt lat="44.02059383291014" lon="3.242433326282454"><ele>808.0</ele><time>2026-04-02T13:22:00Z</time></trkpt><trkpt lat="44.02069265973455" lon="3.2423458922696033"><ele>808.25</ele><time>2026-04-02T13:22:01Z</time></trkpt><trkpt lat="44.02076705699642" lon="3.242266130914251"><ele>808.5</ele><time>2026-04-02T13:22:02Z</time></trkpt><trkpt lat="44.02085308585077" lon="3.2421745747665027"><ele>808.75</ele><time>2026-04-02T13:22:03Z</time></trkpt><trkpt lat="44.020945386220916" lon="3.242066036599551"><ele>809.0</ele><time>2026-04-02T13:22:04Z</time></trkpt><trkpt lat="44.02110176484783" lon="3.241951733127572"><ele>808.0</ele><time>2026-04-02T13:22:05Z</time></trkpt><trkpt lat="44.02125946977483" lon="3.241820863177873"><ele>807.0</ele><time>2026-04-02T13:22:06Z</time></trkpt><trkpt lat="44.021440967269335" lon="3.2417662325391627"><ele>806.0</ele><time>2026-04-02T13:22:07Z</time></trkpt><trkpt lat="44.021619687280456" lon="3.2417333549176255"><ele>806.0</ele><time>2026-04-02T13:22:08Z</time></trkpt><trkpt lat="44.021797019218184" lon="3.241751141509856"><ele>806.0</ele><time>2026-04-02T13:22:09Z</time></trkpt><trkpt lat="44.021977644299994" lon="3.241796353273463"><ele>806.0</ele><time>2026-04-02T13:22:10Z</time></trkpt><trkpt lat="44.02214941001437" lon="3.2418543374071964"><ele>806.0</ele><time>2026-04-02T13:22:11Z</time></trkpt><trkpt lat="44.02232456188156" lon="3.241930918223667"><ele>806.0</ele><time>2026-04-02T13:22:12Z</time></trkpt><trkpt lat="44.02249443561098" lon="3.24201079005754"><ele>806.0</ele><time>2026-04-02T13:22:13Z</time></trkpt><trkpt lat="44.02265805207042" lon="3.2420968102159264"><ele>807.3333333333334</ele><time>2026-04-02T13:22:14Z</time></trkpt><trkpt lat="44.022829373864" lon="3.242174020609042"><ele>808.6666666666667</ele><time>2026-04-02T13:22:15Z</time></trkpt><trkpt lat="44.022995799047735" lon="3.2422270331204164"><ele>810.0</ele><time>2026-04-02T13:22:16Z</time></trkpt><trkpt lat="44.02315205012069" lon="3.2422353187316966"><ele>810.0</ele><time>2026-04-02T13:22:17Z</time></trkpt><trkpt lat="44.023312304149535" lon="3.242192705660291"><ele>810.0</ele><time>2026-04-02T13:22:18Z</time></trkpt><trkpt lat="44.02345421480343" lon="3.2421192603322795"><ele>810.0</ele><time>2026-04-02T13:22:19Z</time></trkpt><trkpt lat="44.0235849563068" lon="3.242058515702444"><ele>810.75</ele><time>2026-04-02T13:22:20Z</time></trkpt><trkpt lat="44.02371735486567" lon="3.2420323178470185"><ele>811.5</ele><time>2026-04-02T13:22:21Z</time></trkpt><trkpt lat="44.02384910667384" lon="3.242002026015021"><ele>812.25</ele><time>2026-04-02T13:22:22Z</time></trkpt><trkpt lat="44.023989291312816" lon="3.2419773822106404"><ele>813.0</ele><time>2026-04-02T13:22:23Z</time></trkpt><trkpt lat="44.024133418996094" lon="3.2419800685306503"><ele>813.25</ele><time>2026-04-02T13:22:24Z</time></trkpt><trkpt lat="44.02425845475732" lon="3.2420479591931577"><ele>813.5</ele><time>2026-04-02T13:22:25Z</time></trkpt><trkpt lat="44.02436247097063" lon="3.2421192657387734"><ele>813.75</ele><time>2026-04-02T13:22:26Z</time></trkpt><trkpt lat="44.02443578956666" lon="3.242232249083936"><ele>814.0</ele><time>2026-04-02T13:22:27Z</time></trkpt><trkpt lat="44.02450771262787" lon="3.242319252479466"><ele>813.6</ele><time>2026-04-02T13:22:28Z</time></trkpt><trkpt lat="44.02459017906268" lon="3.2423762951048403"><ele>813.2</ele><time>2026-04-02T13:22:29Z</time></trkpt><trkpt lat="44.024685044575534" lon="3.2424130436116316"><ele>812.8000000000001</ele><time>2026-04-02T13:22:30Z</time></trkpt><trkpt lat="44.024778033689536" lon="3.2424405013158344"><ele>812.4000000000001</ele><time>2026-04-02T13:22:31Z</time></trkpt><trkpt lat="44.024868317193175" lon="3.2424555719762034"><ele>812.0</ele><time>2026-04-02T13:22:32Z</time></trkpt><trkpt lat="44.02495508471708" lon="3.2424557695872256"><ele>812.5000000000001</ele><time>2026-04-02T13:22:33Z</time></trkpt><trkpt lat="44.025036830942675" lon="3.2424592357530155"><ele>813.0</ele><time>2026-04-02T13:22:34Z</time></trkpt><trkpt lat="44.02512352807936" lon="3.2424760416028704"><ele>813.5</ele><time>2026-04-02T13:22:35Z</time></trkpt><trkpt lat="44.025217496982584" lon="3.2424972898559616"><ele>814.0</ele><time>2026-04-02T13:22:36Z</time></trkpt><trkpt lat="44.02530211869278" lon="3.2425163501229552"><ele>814.5000000000001</ele><time>2026-04-02T13:22:37Z</time></trkpt><trkpt lat="44.02537339940258" lon="3.2425331867542524"><ele>815.0</ele><time>2026-04-02T13:22:38Z</time></trkpt><trkpt lat="44.02546581049181" lon="3.242551994837015"><ele>815.0</ele><time>2026-04-02T13:22:40Z</time></trkpt><trkpt lat="44.02551789902682" lon="3.242742182009223"><ele>815.0</ele><time>2026-04-02T13:22:49Z</time></trkpt><trkpt lat="44.02552124199804" lon="3.2428699068263076"><ele>815.0</ele><time>2026-04-02T13:22:50Z</time></trkpt><trkpt lat="44.025538213100404" lon="3.243034551100967"><ele>815.0</ele><time>2026-04-02T13:22:51Z</time></trkpt><trkpt lat="44.0255628648154" lon="3.243230940184495"><ele>813.6666666666667</ele><time>2026-04-02T13:22:52Z</time></trkpt><trkpt lat="44.025603917208166" lon="3.2434510181458864"><ele>812.3333333333333</ele><time>2026-04-02T13:22:53Z</time></trkpt><trkpt lat="44.025645437537584" lon="3.2437018882749444"><ele>811.0</ele><time>2026-04-02T13:22:54Z</time></trkpt><trkpt lat="44.025676293241546" lon="3.243952399104246"><ele>810.3333333333333</ele><time>2026-04-02T13:22:55Z</time></trkpt><trkpt lat="44.02571273334583" lon="3.244215645693482"><ele>809.6666666666667</ele><time>2026-04-02T13:22:56Z</time></trkpt><trkpt lat="44.025754123628005" lon="3.2444889760339386"><ele>809.0</ele><time>2026-04-02T13:22:57Z</time></trkpt><trkpt lat="44.02579836481542" lon="3.244750336801081"><ele>809.3333333333334</ele><time>2026-04-02T13:22:58Z</time></trkpt><trkpt lat="44.025843559520915" lon="3.245030090984281"><ele>809.6666666666667</ele><time>2026-04-02T13:22:59Z</time></trkpt><trkpt lat="44.02588778279689" lon="3.245331295755669"><ele>810.0</ele><time>2026-04-02T13:23:00Z</time></trkpt><trkpt lat="44.02593141421209" lon="3.2456320943476897"><ele>808.5</ele><time>2026-04-02T13:23:01Z</time></trkpt><trkpt lat="44.02598360512021" lon="3.2459377304336208"><ele>807.0</ele><time>2026-04-02T13:23:02Z</time></trkpt><trkpt lat="44.026031446602225" lon="3.246244549127083"><ele>806.5</ele><time>2026-04-02T13:23:03Z</time></trkpt><trkpt lat="44.026074172357646" lon="3.2465586019226214"><ele>806.0</ele><time>2026-04-02T13:23:04Z</time></trkpt><trkpt lat="44.02611740690391" lon="3.2468684715896474"><ele>806.0</ele><time>2026-04-02T13:23:05Z</time></trkpt><trkpt lat="44.02616679763621" lon="3.2471660599166228"><ele>806.0</ele><time>2026-04-02T13:23:06Z</time></trkpt><trkpt lat="44.026213188307416" lon="3.2474547012683144"><ele>806.0</ele><time>2026-04-02T13:23:07Z</time></trkpt><trkpt lat="44.026253632986005" lon="3.247726023261027"><ele>805.3333333333334</ele><time>2026-04-02T13:23:08Z</time></trkpt><trkpt lat="44.026290114635216" lon="3.24798086436197"><ele>804.6666666666667</ele><time>2026-04-02T13:23:09Z</time></trkpt><trkpt lat="44.02632781993806" lon="3.2482248992714347"><ele>804.0</ele><time>2026-04-02T13:23:10Z</time></trkpt><trkpt lat="44.02636453667193" lon="3.24845439566618"><ele>803.6666666666667</ele><time>2026-04-02T13:23:11Z</time></trkpt><trkpt lat="44.02639788362813" lon="3.2486778573950787"><ele>803.3333333333334</ele><time>2026-04-02T13:23:12Z</time></trkpt><trkpt lat="44.02642755421649" lon="3.2489007139858423"><ele>803.0</ele><time>2026-04-02T13:23:13Z</time></trkpt><trkpt lat="44.026453933904484" lon="3.2491274409089375"><ele>803.0</ele><time>2026-04-02T13:23:14Z</time></trkpt><trkpt lat="44.02648917726494" lon="3.2493759299444336"><ele>803.0</ele><time>2026-04-02T13:23:15Z</time></trkpt><trkpt lat="44.02653391863387" lon="3.2496236599993447"><ele>803.0</ele><time>2026-04-02T13:23:16Z</time></trkpt><trkpt lat="44.02658057643918" lon="3.249885263503147"><ele>803.3333333333334</ele><time>2026-04-02T13:23:17Z</time></trkpt><trkpt lat="44.02662145935056" lon="3.250158186089379"><ele>803.6666666666667</ele><time>2026-04-02T13:23:18Z</time></trkpt><trkpt lat="44.02665435680908" lon="3.2504007964879342"><ele>804.0</ele><time>2026-04-02T13:23:19Z</time></trkpt><trkpt lat="44.02668496832798" lon="3.250638125921049"><ele>804.5</ele><time>2026-04-02T13:23:20Z</time></trkpt><trkpt lat="44.026717092843114" lon="3.250843404465058"><ele>805.0</ele><time>2026-04-02T13:23:21Z</time></trkpt><trkpt lat="44.02674540936969" lon="3.2510203420687387"><ele>805.5</ele><time>2026-04-02T13:23:22Z</time></trkpt><trkpt lat="44.02676604862776" lon="3.251147665239112"><ele>806.0</ele><time>2026-04-02T13:23:23Z</time></trkpt><trkpt lat="44.02679376485109" lon="3.251282873818908"><ele>806.0000000000001</ele><time>2026-04-02T13:23:25Z</time></trkpt><trkpt lat="44.02689436546876" lon="3.251260413628741"><ele>806.0</ele><time>2026-04-02T13:23:26Z</time></trkpt><trkpt lat="44.02700599259745" lon="3.2513043241196926"><ele>806.0</ele><time>2026-04-02T13:23:28Z</time></trkpt><trkpt lat="44.02706256517297" lon="3.2513660211819597"><ele>806.0</ele><time>2026-04-02T13:23:29Z</time></trkpt><trkpt lat="44.02712878917169" lon="3.251432093511438"><ele>806.0000000000001</ele><time>2026-04-02T13:23:30Z</time></trkpt><trkpt lat="44.02718896647594" lon="3.251484575804303"><ele>806.0</ele><time>2026-04-02T13:23:31Z</time></trkpt><trkpt lat="44.027263139484056" lon="3.2515631599727137"><ele>805.8333333333334</ele><time>2026-04-02T13:23:33Z</time></trkpt><trkpt lat="44.02732278843642" lon="3.251623761534864"><ele>805.6666666666667</ele><time>2026-04-02T13:23:35Z</time></trkpt><trkpt lat="44.027377900730855" lon="3.2516827774264403"><ele>805.5</ele><time>2026-04-02T13:23:37Z</time></trkpt><trkpt lat="44.0273762401385" lon="3.251828916468484"><ele>805.3333333333333</ele><time>2026-04-02T13:23:40Z</time></trkpt><trkpt lat="44.027382597766895" lon="3.2519195165716845"><ele>805.1666666666666</ele><time>2026-04-02T13:23:41Z</time></trkpt><trkpt lat="44.02741576025212" lon="3.252043743403772"><ele>805.0</ele><time>2026-04-02T13:23:43Z</time></trkpt><trkpt lat="44.027438497655474" lon="3.252129037637071"><ele>804.25</ele><time>2026-04-02T13:23:45Z</time></trkpt><trkpt lat="44.02736640628384" lon="3.252319006779998"><ele>803.5</ele><time>2026-04-02T13:23:47Z</time></trkpt><trkpt lat="44.02740375898034" lon="3.2524517240096595"><ele>802.75</ele><time>2026-04-02T13:23:49Z</time></trkpt><trkpt lat="44.027427782918" lon="3.252621176710101"><ele>802.0</ele><time>2026-04-02T13:23:51Z</time></trkpt><trkpt lat="44.02744048335676" lon="3.2527836121502567"><ele>801.9999999999999</ele><time>2026-04-02T13:23:53Z</time></trkpt><trkpt lat="44.0274485403554" lon="3.2529104632325128"><ele>802.0</ele><time>2026-04-02T13:23:55Z</time></trkpt><trkpt lat="44.027439999695105" lon="3.253018890736494"><ele>802.0</ele><time>2026-04-02T13:23:57Z</time></trkpt><trkpt lat="44.027479319422454" lon="3.253127962931604"><ele>802.0</ele><time>2026-04-02T13:23:59Z</time></trkpt><trkpt lat="44.027564130680425" lon="3.253202454428258"><ele>801.9999999999999</ele><time>2026-04-02T13:24:01Z</time></trkpt><trkpt lat="44.027611957885284" lon="3.2532970414945557"><ele>802.0</ele><time>2026-04-02T13:24:03Z</time></trkpt><trkpt lat="44.02764044117641" lon="3.2534042802825467"><ele>802.1666666666666</ele><time>2026-04-02T13:24:05Z</time></trkpt><trkpt lat="44.02769320767777" lon="3.253514186560706"><ele>802.3333333333333</ele><time>2026-04-02T13:24:07Z</time></trkpt><trkpt lat="44.02772417637138" lon="3.2536110224444545"><ele>802.5</ele><time>2026-04-02T13:24:09Z</time></trkpt><trkpt lat="44.027716757255455" lon="3.253711823574914"><ele>802.6666666666667</ele><time>2026-04-02T13:24:11Z</time></trkpt><trkpt lat="44.02765806884" lon="3.2537804627505937"><ele>802.8333333333334</ele><time>2026-04-02T13:24:13Z</time></trkpt><trkpt lat="44.02758454005126" lon="3.2538158768441705"><ele>803.0</ele><time>2026-04-02T13:24:15Z</time></trkpt><trkpt lat="44.02751661430367" lon="3.253865217640986"><ele>802.6666666666667</ele><time>2026-04-02T13:24:17Z</time></trkpt><trkpt lat="44.02746311091348" lon="3.253930877498793"><ele>802.3333333333334</ele><time>2026-04-02T13:24:19Z</time></trkpt><trkpt lat="44.0274381225193" lon="3.254024392200938"><ele>802.0</ele><time>2026-04-02T13:24:39Z</time></trkpt><trkpt lat="44.02740959953498" lon="3.2541085048238845"><ele>801.6666666666667</ele><time>2026-04-02T13:24:40Z</time></trkpt><trkpt lat="44.02733197728427" lon="3.2541686688449087"><ele>801.3333333333334</ele><time>2026-04-02T13:24:41Z</time></trkpt><trkpt lat="44.0272991975157" lon="3.2542512385813462"><ele>801.0</ele><time>2026-04-02T13:24:42Z</time></trkpt><trkpt lat="44.02725266402653" lon="3.2543504589041445"><ele>801.0</ele><time>2026-04-02T13:24:46Z</time></trkpt><trkpt lat="44.0272138363809" lon="3.254436575948841"><ele>801.0</ele><time>2026-04-02T13:24:47Z</time></trkpt><trkpt lat="44.02729103809168" lon="3.2546138289275093"><ele>801.0</ele><time>2026-04-02T13:24:48Z</time></trkpt><trkpt lat="44.027324514087375" lon="3.2547919206945912"><ele>801.0</ele><time>2026-04-02T13:24:49Z</time></trkpt><trkpt lat="44.027357779075636" lon="3.2550221788009"><ele>801.0</ele><time>2026-04-02T13:24:50Z</time></trkpt><trkpt lat="44.02739313819181" lon="3.2552735641979287"><ele>801.0</ele><time>2026-04-02T13:24:51Z</time></trkpt><trkpt lat="44.02743156345665" lon="3.2555246277385126"><ele>801.0</ele><time>2026-04-02T13:24:52Z</time></trkpt><trkpt lat="44.02746879094776" lon="3.255779240353131"><ele>800.3333333333333</ele><time>2026-04-02T13:24:53Z</time></trkpt><trkpt lat="44.02750267320215" lon="3.256025099168062"><ele>799.6666666666666</ele><time>2026-04-02T13:24:54Z</time></trkpt><trkpt lat="44.027537776975336" lon="3.256277557382992"><ele>799.0</ele><time>2026-04-02T13:24:55Z</time></trkpt><trkpt lat="44.027578986410916" lon="3.2565528937618593"><ele>799.0</ele><time>2026-04-02T13:24:56Z</time></trkpt><trkpt lat="44.02762407481673" lon="3.2568365897190845"><ele>799.0</ele><time>2026-04-02T13:24:57Z</time></trkpt><trkpt lat="44.02766815160871" lon="3.257122590327722"><ele>799.0</ele><time>2026-04-02T13:24:58Z</time></trkpt><trkpt lat="44.02770729969826" lon="3.2573791342566922"><ele>799.0</ele><time>2026-04-02T13:24:59Z</time></trkpt><trkpt lat="44.027740647401245" lon="3.2576194336544506"><ele>799.0</ele><time>2026-04-02T13:25:00Z</time></trkpt><trkpt lat="44.02777159038639" lon="3.2578463045778143"><ele>799.0</ele><time>2026-04-02T13:25:01Z</time></trkpt><trkpt lat="44.027798021068165" lon="3.2580674854941916"><ele>799.0</ele><time>2026-04-02T13:25:02Z</time></trkpt><trkpt lat="44.02781824554881" lon="3.2583054164112086"><ele>799.0</ele><time>2026-04-02T13:25:03Z</time></trkpt><trkpt lat="44.02782423763792" lon="3.258552640283856"><ele>799.0</ele><time>2026-04-02T13:25:04Z</time></trkpt><trkpt lat="44.02782141021269" lon="3.258820053355654"><ele>799.3333333333333</ele><time>2026-04-02T13:25:05Z</time></trkpt><trkpt lat="44.02781095227239" lon="3.259097347431217"><ele>799.6666666666667</ele><time>2026-04-02T13:25:06Z</time></trkpt><trkpt lat="44.02779697829917" lon="3.2593877942615914"><ele>800.0</ele><time>2026-04-02T13:25:07Z</time></trkpt><trkpt lat="44.02777705220651" lon="3.2596845635461555"><ele>800.0</ele><time>2026-04-02T13:25:08Z</time></trkpt><trkpt lat="44.02775481789721" lon="3.2599733392975936"><ele>800.0</ele><time>2026-04-02T13:25:09Z</time></trkpt><trkpt lat="44.0277267935668" lon="3.2602421799172507"><ele>800.0</ele><time>2026-04-02T13:25:10Z</time></trkpt><trkpt lat="44.027699465280485" lon="3.260492456481146"><ele>800.0</ele><time>2026-04-02T13:25:11Z</time></trkpt><trkpt lat="44.02766545973726" lon="3.260745133503753"><ele>800.0</ele><time>2026-04-02T13:25:12Z</time></trkpt><trkpt lat="44.02762252215922" lon="3.2610061794572145"><ele>800.0</ele><time>2026-04-02T13:25:13Z</time></trkpt><trkpt lat="44.02756739586448" lon="3.261274688534685"><ele>799.3333333333334</ele><time>2026-04-02T13:25:14Z</time></trkpt><trkpt lat="44.027507173139846" lon="3.261541123541646"><ele>798.6666666666667</ele><time>2026-04-02T13:25:15Z</time></trkpt><trkpt lat="44.027445846783124" lon="3.2617951125917246"><ele>798.0</ele><time>2026-04-02T13:25:16Z</time></trkpt><trkpt lat="44.02737896534954" lon="3.2620495963240956"><ele>794.6666666666667</ele><time>2026-04-02T13:25:17Z</time></trkpt><trkpt lat="44.02731009480962" lon="3.2623099953862362"><ele>791.3333333333334</ele><time>2026-04-02T13:25:18Z</time></trkpt><trkpt lat="44.02724977386727" lon="3.2625664616358163"><ele>788.0</ele><time>2026-04-02T13:25:19Z</time></trkpt><trkpt lat="44.027180522403924" lon="3.2628284782330144"><ele>788.0</ele><time>2026-04-02T13:25:20Z</time></trkpt><trkpt lat="44.02707362885778" lon="3.263060509437545"><ele>788.0</ele><time>2026-04-02T13:25:21Z</time></trkpt><trkpt lat="44.02695459254306" lon="3.2632770294057747"><ele>788.0</ele><time>2026-04-02T13:25:22Z</time></trkpt><trkpt lat="44.02682590089314" lon="3.2635046081211754"><ele>787.0</ele><time>2026-04-02T13:25:23Z</time></trkpt><trkpt lat="44.02667794807783" lon="3.2637088703813135"><ele>786.0</ele><time>2026-04-02T13:25:24Z</time></trkpt><trkpt lat="44.026538362917066" lon="3.2639204743223673"><ele>785.0</ele><time>2026-04-02T13:25:25Z</time></trkpt><trkpt lat="44.02641198494964" lon="3.264153145879648"><ele>780.3333333333334</ele><time>2026-04-02T13:25:26Z</time></trkpt><trkpt lat="44.026299324392745" lon="3.2644033386414106"><ele>775.6666666666667</ele><time>2026-04-02T13:25:27Z</time></trkpt><trkpt lat="44.02619927071406" lon="3.26466319449911"><ele>771.0</ele><time>2026-04-02T13:25:28Z</time></trkpt><trkpt lat="44.0261046415957" lon="3.2649375859648715"><ele>770.6666666666667</ele><time>2026-04-02T13:25:29Z</time></trkpt><trkpt lat="44.026019811301126" lon="3.265196083821469"><ele>770.3333333333334</ele><time>2026-04-02T13:25:30Z</time></trkpt><trkpt lat="44.0259254223122" lon="3.2654502929195464"><ele>770.0</ele><time>2026-04-02T13:25:31Z</time></trkpt><trkpt lat="44.0258386006859" lon="3.2657064578792294"><ele>763.6666666666667</ele><time>2026-04-02T13:25:32Z</time></trkpt><trkpt lat="44.02580393465489" lon="3.265983794142916"><ele>757.3333333333334</ele><time>2026-04-02T13:25:33Z</time></trkpt><trkpt lat="44.025794252329476" lon="3.266279806063512"><ele>751.0</ele><time>2026-04-02T13:25:34Z</time></trkpt><trkpt lat="44.025748310570044" lon="3.2665524704404305"><ele>747.0</ele><time>2026-04-02T13:25:35Z</time></trkpt><trkpt lat="44.02561307434422" lon="3.2667587323282885"><ele>743.0</ele><time>2026-04-02T13:25:36Z</time></trkpt><trkpt lat="44.025502842327064" lon="3.2670100863185274"><ele>739.0</ele><time>2026-04-02T13:25:37Z</time></trkpt><trkpt lat="44.02539180738337" lon="3.2672331684904394"><ele>741.0</ele><time>2026-04-02T13:25:38Z</time></trkpt><trkpt lat="44.025337285556894" lon="3.2674951250823905"><ele>743.0</ele><time>2026-04-02T13:25:39Z</time></trkpt><trkpt lat="44.025322398236696" lon="3.2677646392050455"><ele>745.0</ele><time>2026-04-02T13:25:40Z</time></trkpt><trkpt lat="44.02530999872673" lon="3.2680094082153515"><ele>750.3333333333334</ele><time>2026-04-02T13:25:41Z</time></trkpt><trkpt lat="44.025217768987424" lon="3.268201893540122"><ele>755.6666666666666</ele><time>2026-04-02T13:25:42Z</time></trkpt><trkpt lat="44.02507050799004" lon="3.2683081157915836"><ele>761.0</ele><time>2026-04-02T13:25:43Z</time></trkpt><trkpt lat="44.024908910309534" lon="3.268432779578658"><ele>746.3333333333333</ele><time>2026-04-02T13:25:44Z</time></trkpt><trkpt lat="44.02475923786494" lon="3.268573051432184"><ele>731.6666666666666</ele><time>2026-04-02T13:25:45Z</time></trkpt><trkpt lat="44.02464755001467" lon="3.2687527858317904"><ele>717.0</ele><time>2026-04-02T13:25:46Z</time></trkpt><trkpt lat="44.0246115388786" lon="3.2689914979872516"><ele>717.0</ele><time>2026-04-02T13:25:47Z</time></trkpt><trkpt lat="44.02463731875746" lon="3.269241393745258"><ele>717.0</ele><time>2026-04-02T13:25:48Z</time></trkpt><trkpt lat="44.024706659345846" lon="3.269483285474076"><ele>717.0</ele><time>2026-04-02T13:25:49Z</time></trkpt><trkpt lat="44.024740768492194" lon="3.2697215950170824"><ele>718.3333333333334</ele><time>2026-04-02T13:25:50Z</time></trkpt><trkpt lat="44.02464419922256" lon="3.269919595175767"><ele>719.6666666666667</ele><time>2026-04-02T13:25:51Z</time></trkpt><trkpt lat="44.02452606682737" lon="3.270116579453046"><ele>721.0</ele><time>2026-04-02T13:25:52Z</time></trkpt><trkpt lat="44.02441866186047" lon="3.270333559889953"><ele>721.0</ele><time>2026-04-02T13:25:53Z</time></trkpt><trkpt lat="44.02432429202239" lon="3.270581573702242"><ele>721.0</ele><time>2026-04-02T13:25:54Z</time></trkpt><trkpt lat="44.02428656160118" lon="3.2708870718835485"><ele>721.0</ele><time>2026-04-02T13:25:55Z</time></trkpt><trkpt lat="44.024267902295236" lon="3.271197256085545"><ele>723.6666666666667</ele><time>2026-04-02T13:25:56Z</time></trkpt><trkpt lat="44.024268512905074" lon="3.2715076698223102"><ele>726.3333333333334</ele><time>2026-04-02T13:25:57Z</time></trkpt><trkpt lat="44.024297584931915" lon="3.27178043262006"><ele>729.0</ele><time>2026-04-02T13:25:58Z</time></trkpt><trkpt lat="44.02436676788775" lon="3.2720362240185223"><ele>726.6666666666666</ele><time>2026-04-02T13:25:59Z</time></trkpt><trkpt lat="44.02444295819396" lon="3.2722829392085746"><ele>724.3333333333333</ele><time>2026-04-02T13:26:00Z</time></trkpt><trkpt lat="44.02441708014161" lon="3.2725126690243913"><ele>722.0</ele><time>2026-04-02T13:26:01Z</time></trkpt><trkpt lat="44.024344924205835" lon="3.272733018924503"><ele>722.0</ele><time>2026-04-02T13:26:02Z</time></trkpt><trkpt lat="44.02421702185433" lon="3.2728976261532607"><ele>722.0</ele><time>2026-04-02T13:26:03Z</time></trkpt><trkpt lat="44.02405771057915" lon="3.2730222151084836"><ele>722.0</ele><time>2026-04-02T13:26:04Z</time></trkpt><trkpt lat="44.023877618793726" lon="3.2731235394437332"><ele>717.3333333333333</ele><time>2026-04-02T13:26:05Z</time></trkpt><trkpt lat="44.023691972435174" lon="3.273244082121288"><ele>712.6666666666666</ele><time>2026-04-02T13:26:06Z</time></trkpt><trkpt lat="44.02350405661581" lon="3.273353527388771"><ele>708.0</ele><time>2026-04-02T13:26:07Z</time></trkpt><trkpt lat="44.02333496958314" lon="3.273520050692901"><ele>698.0</ele><time>2026-04-02T13:26:08Z</time></trkpt><trkpt lat="44.02319443953133" lon="3.2737504311443555"><ele>688.0</ele><time>2026-04-02T13:26:09Z</time></trkpt><trkpt lat="44.02307556565676" lon="3.2740124527637597"><ele>678.0</ele><time>2026-04-02T13:26:10Z</time></trkpt><trkpt lat="44.022977419479204" lon="3.2742720432350123"><ele>678.0</ele><time>2026-04-02T13:26:11Z</time></trkpt><trkpt lat="44.022899354298886" lon="3.2745456942952393"><ele>678.0</ele><time>2026-04-02T13:26:12Z</time></trkpt><trkpt lat="44.022868277848445" lon="3.2748345029126296"><ele>678.0</ele><time>2026-04-02T13:26:13Z</time></trkpt><trkpt lat="44.022889598457894" lon="3.27513674343263"><ele>680.0</ele><time>2026-04-02T13:26:14Z</time></trkpt><trkpt lat="44.022940004382114" lon="3.275422145083209"><ele>682.0</ele><time>2026-04-02T13:26:15Z</time></trkpt><trkpt lat="44.02296773250742" lon="3.275701352240665"><ele>684.0</ele><time>2026-04-02T13:26:16Z</time></trkpt><trkpt lat="44.02293613082255" lon="3.275974668059366"><ele>685.0</ele><time>2026-04-02T13:26:17Z</time></trkpt><trkpt lat="44.02283875854876" lon="3.2762321571231876"><ele>686.0</ele><time>2026-04-02T13:26:18Z</time></trkpt><trkpt lat="44.02273971607901" lon="3.2764545192599845"><ele>687.0</ele><time>2026-04-02T13:26:19Z</time></trkpt><trkpt lat="44.02262003754823" lon="3.2766129114103055"><ele>688.3333333333334</ele><time>2026-04-02T13:26:20Z</time></trkpt><trkpt lat="44.02246408217513" lon="3.2766809076529846"><ele>689.6666666666667</ele><time>2026-04-02T13:26:21Z</time></trkpt><trkpt lat="44.022304185497916" lon="3.2766555663615176"><ele>691.0</ele><time>2026-04-02T13:26:22Z</time></trkpt><trkpt lat="44.02213062012157" lon="3.2765872997868977"><ele>691.0</ele><time>2026-04-02T13:26:23Z</time></trkpt><trkpt lat="44.02194723058056" lon="3.2765333461317425"><ele>691.0</ele><time>2026-04-02T13:26:24Z</time></trkpt><trkpt lat="44.02178298625532" lon="3.276513387355832"><ele>691.0</ele><time>2026-04-02T13:26:25Z</time></trkpt><trkpt lat="44.02163155585616" lon="3.276550332644311"><ele>676.3333333333334</ele><time>2026-04-02T13:26:26Z</time></trkpt><trkpt lat="44.021501551132964" lon="3.2766734233221766"><ele>661.6666666666666</ele><time>2026-04-02T13:26:27Z</time></trkpt><trkpt lat="44.02137456225119" lon="3.276859629747553"><ele>647.0</ele><time>2026-04-02T13:26:28Z</time></trkpt><trkpt lat="44.02126523256013" lon="3.2770972039660142"><ele>651.3333333333333</ele><time>2026-04-02T13:26:29Z</time></trkpt><trkpt lat="44.021176899349264" lon="3.2773688479771668"><ele>655.6666666666666</ele><time>2026-04-02T13:26:30Z</time></trkpt><trkpt lat="44.021090269018195" lon="3.2776612695897587"><ele>660.0</ele><time>2026-04-02T13:26:31Z</time></trkpt><trkpt lat="44.020990447114066" lon="3.2779681497326862"><ele>671.5</ele><time>2026-04-02T13:26:32Z</time></trkpt><trkpt lat="44.020878700304586" lon="3.278256755848454"><ele>683.0</ele><time>2026-04-02T13:26:33Z</time></trkpt><trkpt lat="44.02074985779133" lon="3.278544511279948"><ele>663.5</ele><time>2026-04-02T13:26:34Z</time></trkpt><trkpt lat="44.0206186348226" lon="3.2788300959774466"><ele>644.0</ele><time>2026-04-02T13:26:35Z</time></trkpt><trkpt lat="44.02049929464674" lon="3.2791396779160196"><ele>644.0</ele><time>2026-04-02T13:26:36Z</time></trkpt><trkpt lat="44.02040567819432" lon="3.279463359757238"><ele>644.0</ele><time>2026-04-02T13:26:37Z</time></trkpt><trkpt lat="44.02032407510845" lon="3.279790536448862"><ele>647.5</ele><time>2026-04-02T13:26:38Z</time></trkpt><trkpt lat="44.02024287568707" lon="3.2801037215832496"><ele>651.0</ele><time>2026-04-02T13:26:39Z</time></trkpt><trkpt lat="44.020149632864445" lon="3.280407128402793"><ele>655.0</ele><time>2026-04-02T13:26:40Z</time></trkpt><trkpt lat="44.02006192035964" lon="3.2806816121075237"><ele>659.0</ele><time>2026-04-02T13:26:41Z</time></trkpt><trkpt lat="44.019984406502886" lon="3.2809215738950224"><ele>663.0</ele><time>2026-04-02T13:26:42Z</time></trkpt><trkpt lat="44.01995194014189" lon="3.2811870057748145"><ele>661.3333333333334</ele><time>2026-04-02T13:26:43Z</time></trkpt><trkpt lat="44.01996706167736" lon="3.2814522194317943"><ele>659.6666666666667</ele><time>2026-04-02T13:26:44Z</time></trkpt><trkpt lat="44.020035298503466" lon="3.2817173190382207"><ele>658.0</ele><time>2026-04-02T13:26:45Z</time></trkpt><trkpt lat="44.02015266914735" lon="3.281961239179567"><ele>658.0</ele><time>2026-04-02T13:26:46Z</time></trkpt><trkpt lat="44.02029833824906" lon="3.282198831464854"><ele>658.0</ele><time>2026-04-02T13:26:47Z</time></trkpt><trkpt lat="44.020465155862325" lon="3.2824243346946282"><ele>666.0</ele><time>2026-04-02T13:26:48Z</time></trkpt><trkpt lat="44.02064796968004" lon="3.282657092778103"><ele>674.0</ele><time>2026-04-02T13:26:49Z</time></trkpt><trkpt lat="44.02082278913937" lon="3.2828618786130206"><ele>674.0</ele><time>2026-04-02T13:26:50Z</time></trkpt><trkpt lat="44.02097753106005" lon="3.2830858781904406"><ele>674.0</ele><time>2026-04-02T13:26:51Z</time></trkpt><trkpt lat="44.02108118140566" lon="3.2833832911658525"><ele>659.5</ele><time>2026-04-02T13:26:52Z</time></trkpt><trkpt lat="44.02119777364782" lon="3.283687860867055"><ele>645.0</ele><time>2026-04-02T13:26:53Z</time></trkpt><trkpt lat="44.021297457432816" lon="3.2840355021674443"><ele>631.0</ele><time>2026-04-02T13:26:54Z</time></trkpt><trkpt lat="44.02142724494548" lon="3.2843972507869155"><ele>617.0</ele><time>2026-04-02T13:26:55Z</time></trkpt><trkpt lat="44.021571314226634" lon="3.2847430111665483"><ele>631.0</ele><time>2026-04-02T13:26:56Z</time></trkpt><trkpt lat="44.02170446652412" lon="3.2850677945987683"><ele>645.0</ele><time>2026-04-02T13:26:57Z</time></trkpt><trkpt lat="44.02182157151155" lon="3.2853835842372034"><ele>633.5</ele><time>2026-04-02T13:26:58Z</time></trkpt><trkpt lat="44.021916942733206" lon="3.28571647338491"><ele>622.0</ele><time>2026-04-02T13:26:59Z</time></trkpt><trkpt lat="44.02200053571177" lon="3.2860492747640837"><ele>622.0</ele><time>2026-04-02T13:27:00Z</time></trkpt><trkpt lat="44.0221170258901" lon="3.286363315763352"><ele>622.0</ele><time>2026-04-02T13:27:01Z</time></trkpt><trkpt lat="44.0222922463957" lon="3.2866675619825356"><ele>629.5</ele><time>2026-04-02T13:27:02Z</time></trkpt><trkpt lat="44.022484116008" lon="3.2869696173136544"><ele>637.0</ele><time>2026-04-02T13:27:03Z</time></trkpt><trkpt lat="44.02267127039526" lon="3.2872538481361135"><ele>623.5</ele><time>2026-04-02T13:27:04Z</time></trkpt><trkpt lat="44.02287580116277" lon="3.287532960473878"><ele>610.0</ele><time>2026-04-02T13:27:05Z</time></trkpt><trkpt lat="44.02309112135633" lon="3.2877582157872447"><ele>610.0</ele><time>2026-04-02T13:27:06Z</time></trkpt><trkpt lat="44.0232825570085" lon="3.287947363173723"><ele>610.0</ele><time>2026-04-02T13:27:07Z</time></trkpt><trkpt lat="44.02344583980165" lon="3.288136859079074"><ele>610.0</ele><time>2026-04-02T13:27:08Z</time></trkpt><trkpt lat="44.0235905352697" lon="3.288358485583588"><ele>610.5</ele><time>2026-04-02T13:27:09Z</time></trkpt><trkpt lat="44.02370347397972" lon="3.288635882619906"><ele>611.0</ele><time>2026-04-02T13:27:10Z</time></trkpt><trkpt lat="44.023791254230666" lon="3.28898593740436"><ele>600.5</ele><time>2026-04-02T13:27:11Z</time></trkpt><trkpt lat="44.02387611296749" lon="3.2893532577522544"><ele>590.0</ele><time>2026-04-02T13:27:12Z</time></trkpt><trkpt lat="44.023996236880976" lon="3.289742549454284"><ele>582.0</ele><time>2026-04-02T13:27:13Z</time></trkpt><trkpt lat="44.02412380101255" lon="3.2901146053442067"><ele>574.0</ele><time>2026-04-02T13:27:14Z</time></trkpt><trkpt lat="44.024245406078066" lon="3.2904912152644297"><ele>581.5</ele><time>2026-04-02T13:27:15Z</time></trkpt><trkpt lat="44.02437967900717" lon="3.290853864260676"><ele>589.0</ele><time>2026-04-02T13:27:16Z</time></trkpt><trkpt lat="44.024541079400855" lon="3.2912113146276787"><ele>580.5</ele><time>2026-04-02T13:27:17Z</time></trkpt><trkpt lat="44.02469468100578" lon="3.291555883605793"><ele>572.0</ele><time>2026-04-02T13:27:18Z</time></trkpt><trkpt lat="44.02484415326221" lon="3.29190607924497"><ele>572.0</ele><time>2026-04-02T13:27:19Z</time></trkpt><trkpt lat="44.02497855910175" lon="3.292219548628839"><ele>572.0</ele><time>2026-04-02T13:27:20Z</time></trkpt><trkpt lat="44.02510959169788" lon="3.2925282605565944"><ele>568.5</ele><time>2026-04-02T13:27:21Z</time></trkpt><trkpt lat="44.02523866241065" lon="3.2928405960306466"><ele>565.0</ele><time>2026-04-02T13:27:22Z</time></trkpt><trkpt lat="44.0253685521297" lon="3.293161564009139"><ele>565.0</ele><time>2026-04-02T13:27:23Z</time></trkpt><trkpt lat="44.02549435000621" lon="3.2934475306047104"><ele>565.0</ele><time>2026-04-02T13:27:24Z</time></trkpt><trkpt lat="44.02568351801335" lon="3.2937394090653926"><ele>569.0</ele><time>2026-04-02T13:27:25Z</time></trkpt><trkpt lat="44.02590886485164" lon="3.2940115935126366"><ele>573.0</ele><time>2026-04-02T13:27:26Z</time></trkpt><trkpt lat="44.02611472409692" lon="3.2942690646232684"><ele>573.0</ele><time>2026-04-02T13:27:27Z</time></trkpt><trkpt lat="44.02630724870243" lon="3.2945144922021274"><ele>573.0</ele><time>2026-04-02T13:27:28Z</time></trkpt><trkpt lat="44.02647831185958" lon="3.2947390750553516"><ele>570.6666666666666</ele><time>2026-04-02T13:27:29Z</time></trkpt><trkpt lat="44.026606207454" lon="3.294916252036999"><ele>568.3333333333333</ele><time>2026-04-02T13:27:30Z</time></trkpt><trkpt lat="44.02672751457092" lon="3.2950487744130865"><ele>566.0</ele><time>2026-04-02T13:27:31Z</time></trkpt><trkpt lat="44.02687671198139" lon="3.295116041269115"><ele>566.0</ele><time>2026-04-02T13:27:32Z</time></trkpt><trkpt lat="44.02702263005506" lon="3.295080915760128"><ele>566.0</ele><time>2026-04-02T13:27:33Z</time></trkpt><trkpt lat="44.02716171527955" lon="3.2949604739406717"><ele>566.0</ele><time>2026-04-02T13:27:34Z</time></trkpt><trkpt lat="44.0272836112287" lon="3.2947555194320035"><ele>567.3333333333333</ele><time>2026-04-02T13:27:35Z</time></trkpt><trkpt lat="44.02738677990154" lon="3.2944934374312296"><ele>568.6666666666666</ele><time>2026-04-02T13:27:36Z</time></trkpt><trkpt lat="44.02750278327437" lon="3.294215603571865"><ele>570.0</ele><time>2026-04-02T13:27:37Z</time></trkpt><trkpt lat="44.027615004496404" lon="3.293916485094965"><ele>572.6666666666666</ele><time>2026-04-02T13:27:38Z</time></trkpt><trkpt lat="44.02769014398141" lon="3.293623835588893"><ele>575.3333333333333</ele><time>2026-04-02T13:27:39Z</time></trkpt><trkpt lat="44.02773102593093" lon="3.293343529584477"><ele>578.0</ele><time>2026-04-02T13:27:40Z</time></trkpt><trkpt lat="44.0277358844853" lon="3.293078009921557"><ele>578.75</ele><time>2026-04-02T13:27:41Z</time></trkpt><trkpt lat="44.02771282914635" lon="3.2928562463369055"><ele>579.5</ele><time>2026-04-02T13:27:42Z</time></trkpt><trkpt lat="44.02769140482343" lon="3.2926879614718567"><ele>580.25</ele><time>2026-04-02T13:27:43Z</time></trkpt><trkpt lat="44.0276766371354" lon="3.292547201978139"><ele>581.0</ele><time>2026-04-02T13:27:44Z</time></trkpt><trkpt lat="44.02766928005242" lon="3.2923473387929576"><ele>581.0</ele><time>2026-04-02T13:27:46Z</time></trkpt><trkpt lat="44.027920818368735" lon="3.2926846622642514"><ele>581.0</ele><time>2026-04-02T13:27:47Z</time></trkpt><trkpt lat="44.027916633242754" lon="3.2928300349247817"><ele>581.0</ele><time>2026-04-02T13:27:48Z</time></trkpt><trkpt lat="44.0279127521742" lon="3.2930364530302234"><ele>581.0</ele><time>2026-04-02T13:27:49Z</time></trkpt><trkpt lat="44.02791124268379" lon="3.2932424352340273"><ele>581.0</ele><time>2026-04-02T13:27:50Z</time></trkpt><trkpt lat="44.02790828200407" lon="3.293547248422586"><ele>579.5</ele><time>2026-04-02T13:27:51Z</time></trkpt><trkpt lat="44.02788262723042" lon="3.2938785503039716"><ele>578.0</ele><time>2026-04-02T13:27:52Z</time></trkpt><trkpt lat="44.02782758305105" lon="3.294233512266734"><ele>574.0</ele><time>2026-04-02T13:27:53Z</time></trkpt><trkpt lat="44.02776675443025" lon="3.2946019034187097"><ele>570.0</ele><time>2026-04-02T13:27:54Z</time></trkpt><trkpt lat="44.02771183316081" lon="3.2949479464312685"><ele>561.0</ele><time>2026-04-02T13:27:55Z</time></trkpt><trkpt lat="44.02764409375227" lon="3.2952880437842778"><ele>552.0</ele><time>2026-04-02T13:27:56Z</time></trkpt><trkpt lat="44.02755175968696" lon="3.295588099913346"><ele>546.5</ele><time>2026-04-02T13:27:57Z</time></trkpt><trkpt lat="44.02743467283329" lon="3.295849949588407"><ele>541.0</ele><time>2026-04-02T13:27:58Z</time></trkpt><trkpt lat="44.027264378606034" lon="3.296076756520623"><ele>541.0</ele><time>2026-04-02T13:27:59Z</time></trkpt><trkpt lat="44.02708261196563" lon="3.2962059293431625"><ele>541.0</ele><time>2026-04-02T13:28:00Z</time></trkpt><trkpt lat="44.026912178827644" lon="3.296232711135821"><ele>541.0</ele><time>2026-04-02T13:28:01Z</time></trkpt><trkpt lat="44.026749249676705" lon="3.296187569119094"><ele>535.0</ele><time>2026-04-02T13:28:02Z</time></trkpt><trkpt lat="44.02657443352385" lon="3.2960154812623847"><ele>529.0</ele><time>2026-04-02T13:28:03Z</time></trkpt><trkpt lat="44.02639853741" lon="3.2958420618373956"><ele>523.0</ele><time>2026-04-02T13:28:04Z</time></trkpt><trkpt lat="44.026207076442816" lon="3.2957098473489457"><ele>523.0</ele><time>2026-04-02T13:28:05Z</time></trkpt><trkpt lat="44.02597528076733" lon="3.2956012707740423"><ele>523.0</ele><time>2026-04-02T13:28:06Z</time></trkpt><trkpt lat="44.025727437239794" lon="3.295503398384977"><ele>527.0</ele><time>2026-04-02T13:28:07Z</time></trkpt><trkpt lat="44.02550872256775" lon="3.295436267994066"><ele>531.0</ele><time>2026-04-02T13:28:08Z</time></trkpt><trkpt lat="44.025281832171856" lon="3.295388222561334"><ele>531.0</ele><time>2026-04-02T13:28:09Z</time></trkpt><trkpt lat="44.02505289123993" lon="3.295386112048188"><ele>531.0</ele><time>2026-04-02T13:28:10Z</time></trkpt><trkpt lat="44.0248140684577" lon="3.2954077946096003"><ele>527.3333333333334</ele><time>2026-04-02T13:28:11Z</time></trkpt><trkpt lat="44.02459294954941" lon="3.29539853901395"><ele>523.6666666666667</ele><time>2026-04-02T13:28:12Z</time></trkpt><trkpt lat="44.02438544172655" lon="3.295390260398034"><ele>520.0</ele><time>2026-04-02T13:28:13Z</time></trkpt><trkpt lat="44.02418778139494" lon="3.2953670412773914"><ele>517.6666666666667</ele><time>2026-04-02T13:28:14Z</time></trkpt><trkpt lat="44.02399586986135" lon="3.2953342069261926"><ele>515.3333333333334</ele><time>2026-04-02T13:28:15Z</time></trkpt><trkpt lat="44.02380259029828" lon="3.2952886328749913"><ele>513.0</ele><time>2026-04-02T13:28:16Z</time></trkpt><trkpt lat="44.023611966963315" lon="3.295229465354957"><ele>513.0</ele><time>2026-04-02T13:28:17Z</time></trkpt><trkpt lat="44.023442565700385" lon="3.295166047723978"><ele>513.0</ele><time>2026-04-02T13:28:18Z</time></trkpt><trkpt lat="44.02327447993114" lon="3.2951163846431992"><ele>513.0</ele><time>2026-04-02T13:28:19Z</time></trkpt><trkpt lat="44.02315278736344" lon="3.2950538811001353"><ele>511.4</ele><time>2026-04-02T13:28:20Z</time></trkpt><trkpt lat="44.02306445894571" lon="3.2950205035423266"><ele>509.79999999999995</ele><time>2026-04-02T13:28:21Z</time></trkpt><trkpt lat="44.022968020245095" lon="3.2951289211802064"><ele>508.2</ele><time>2026-04-02T13:28:23Z</time></trkpt><trkpt lat="44.02293518441642" lon="3.295216215952716"><ele>506.6</ele><time>2026-04-02T13:28:24Z</time></trkpt><trkpt lat="44.02296429966795" lon="3.295385503892571"><ele>505.0</ele><time>2026-04-02T13:28:25Z</time></trkpt><trkpt lat="44.022983797245885" lon="3.295595471471195"><ele>504.25</ele><time>2026-04-02T13:28:26Z</time></trkpt><trkpt lat="44.023004771714675" lon="3.2958124316035144"><ele>503.5</ele><time>2026-04-02T13:28:27Z</time></trkpt><trkpt lat="44.023025510556515" lon="3.296002207621721"><ele>502.75</ele><time>2026-04-02T13:28:28Z</time></trkpt><trkpt lat="44.02307187429147" lon="3.296180683647281"><ele>502.0</ele><time>2026-04-02T13:28:29Z</time></trkpt><trkpt lat="44.02317098879629" lon="3.2963207545127475"><ele>501.5</ele><time>2026-04-02T13:28:30Z</time></trkpt><trkpt lat="44.023272878329585" lon="3.29645805461367"><ele>501.0</ele><time>2026-04-02T13:28:31Z</time></trkpt><trkpt lat="44.023360696660475" lon="3.2966169160721925"><ele>500.5</ele><time>2026-04-02T13:28:32Z</time></trkpt><trkpt lat="44.02343484706885" lon="3.296778869957008"><ele>500.0</ele><time>2026-04-02T13:28:33Z</time></trkpt><trkpt lat="44.023505338357374" lon="3.29694598221099"><ele>500.0</ele><time>2026-04-02T13:28:34Z</time></trkpt><trkpt lat="44.0235630295664" lon="3.297125188564984"><ele>500.0</ele><time>2026-04-02T13:28:35Z</time></trkpt><trkpt lat="44.02362336420102" lon="3.2973026833983528"><ele>500.0</ele><time>2026-04-02T13:28:36Z</time></trkpt><trkpt lat="44.02369030173447" lon="3.297461743535017"><ele>500.0</ele><time>2026-04-02T13:28:37Z</time></trkpt><trkpt lat="44.023746091726984" lon="3.297616798392367"><ele>500.0</ele><time>2026-04-02T13:28:38Z</time></trkpt><trkpt lat="44.023792429689344" lon="3.2977699028478025"><ele>500.0</ele><time>2026-04-02T13:28:39Z</time></trkpt><trkpt lat="44.02383668152707" lon="3.297906679855575"><ele>500.0</ele><time>2026-04-02T13:28:40Z</time></trkpt><trkpt lat="44.023884237568964" lon="3.298017370019233"><ele>500.0</ele><time>2026-04-02T13:28:41Z</time></trkpt><trkpt lat="44.023932510766095" lon="3.2980849260224163"><ele>500.0</ele><time>2026-04-02T13:28:42Z</time></trkpt><trkpt lat="44.02398102615425" lon="3.2981643657919335"><ele>500.0</ele><time>2026-04-02T13:28:44Z</time></trkpt><trkpt lat="44.023993311938575" lon="3.298269088247011"><ele>500.0</ele><time>2026-04-02T13:28:46Z</time></trkpt><trkpt lat="44.02387748674197" lon="3.2982855328102363"><ele>500.0</ele><time>2026-04-02T13:28:48Z</time></trkpt><trkpt lat="44.02389381078215" lon="3.2981449200246633"><ele>500.0</ele><time>2026-04-02T13:28:49Z</time></trkpt><trkpt lat="44.023718741045435" lon="3.2980540047386477"><ele>498.5</ele><time>2026-04-02T13:28:52Z</time></trkpt><trkpt lat="44.02361777701903" lon="3.2983985826970024"><ele>497.0</ele><time>2026-04-02T13:28:53Z</time></trkpt><trkpt lat="44.02399483651763" lon="3.298325016348578"><ele>496.99999999999994</ele><time>2026-04-02T13:28:56Z</time></trkpt><trkpt lat="44.02387833480779" lon="3.2983912370923094"><ele>497.0</ele><time>2026-04-02T13:29:56Z</time></trkpt><trkpt lat="44.023803485325296" lon="3.2984307670670234"><ele>497.0</ele><time>2026-04-02T13:30:27Z</time></trkpt><trkpt lat="44.02385704068915" lon="3.2984791068357766"><ele>497.0</ele><time>2026-04-02T13:32:08Z</time></trkpt><trkpt lat="44.02392399804543" lon="3.2984729874679033"><ele>496.99999999999994</ele><time>2026-04-02T13:33:29Z</time></trkpt><trkpt lat="44.02385898903907" lon="3.2984697406155346"><ele>497.0</ele><time>2026-04-02T13:33:44Z</time></trkpt><trkpt lat="44.02380965333744" lon="3.2984108788967617"><ele>496.99999999999994</ele><time>2026-04-02T13:34:04Z</time></trkpt><trkpt lat="44.02386823382521" lon="3.2984573031796978"><ele>497.0</ele><time>2026-04-02T13:37:06Z</time></trkpt><trkpt lat="44.02385787702657" lon="3.2983670167846166"><ele>497.0</ele><time>2026-04-02T13:40:24Z</time></trkpt><trkpt lat="44.0238626267" lon="3.298278790447573"><ele>497.0</ele><time>2026-04-02T13:40:35Z</time></trkpt><trkpt lat="44.02393497409793" lon="3.2981913343014706"><ele>496.99999999999994</ele><time>2026-04-02T13:46:03Z</time></trkpt><trkpt lat="44.024025776709806" lon="3.2981813185694278"><ele>497.0</ele><time>2026-04-02T13:46:05Z</time></trkpt><trkpt lat="44.02413778593339" lon="3.2982258530468673"><ele>495.6</ele><time>2026-04-02T13:46:07Z</time></trkpt><trkpt lat="44.02420829756519" lon="3.2982772768006194"><ele>494.20000000000005</ele><time>2026-04-02T13:46:08Z</time></trkpt><trkpt lat="44.0242917036897" lon="3.2983269121567975"><ele>492.8</ele><time>2026-04-02T13:46:09Z</time></trkpt><trkpt lat="44.02438661865692" lon="3.2983665176742134"><ele>491.4</ele><time>2026-04-02T13:46:10Z</time></trkpt><trkpt lat="44.02449377073518" lon="3.298389572398451"><ele>490.0</ele><time>2026-04-02T13:46:11Z</time></trkpt><trkpt lat="44.02460440471439" lon="3.298427701404318"><ele>490.0</ele><time>2026-04-02T13:46:12Z</time></trkpt><trkpt lat="44.02472497574638" lon="3.2984509397901083"><ele>490.0</ele><time>2026-04-02T13:46:13Z</time></trkpt><trkpt lat="44.0248383199963" lon="3.2984603700818247"><ele>490.0</ele><time>2026-04-02T13:46:14Z</time></trkpt><trkpt lat="44.024938718431514" lon="3.298499831193682"><ele>490.0</ele><time>2026-04-02T13:46:15Z</time></trkpt><trkpt lat="44.02503074615019" lon="3.298544010324241"><ele>490.0</ele><time>2026-04-02T13:46:16Z</time></trkpt><trkpt lat="44.02511322590558" lon="3.29859229806863"><ele>489.6</ele><time>2026-04-02T13:46:17Z</time></trkpt><trkpt lat="44.02516850099215" lon="3.298644767246352"><ele>489.2</ele><time>2026-04-02T13:46:18Z</time></trkpt><trkpt lat="44.025210349034616" lon="3.298714329481588"><ele>488.79999999999995</ele><time>2026-04-02T13:46:19Z</time></trkpt><trkpt lat="44.02521776449823" lon="3.2988111735383128"><ele>488.4</ele><time>2026-04-02T13:46:21Z</time></trkpt><trkpt lat="44.02509776872525" lon="3.298917570551244"><ele>488.0</ele><time>2026-04-02T13:46:25Z</time></trkpt><trkpt lat="44.02500965148765" lon="3.2990202667450514"><ele>488.75</ele><time>2026-04-02T13:46:26Z</time></trkpt><trkpt lat="44.024896662160074" lon="3.2991102943841413"><ele>489.5</ele><time>2026-04-02T13:46:27Z</time></trkpt><trkpt lat="44.02476448464142" lon="3.299223821072793"><ele>490.25</ele><time>2026-04-02T13:46:28Z</time></trkpt><trkpt lat="44.024638747660944" lon="3.299333955540354"><ele>491.0</ele><time>2026-04-02T13:46:29Z</time></trkpt><trkpt lat="44.02451132071442" lon="3.2994487873323175"><ele>491.0</ele><time>2026-04-02T13:46:30Z</time></trkpt><trkpt lat="44.0243837248072" lon="3.2995608126170306"><ele>491.0</ele><time>2026-04-02T13:46:31Z</time></trkpt><trkpt lat="44.02426070981175" lon="3.29966839867773"><ele>491.0</ele><time>2026-04-02T13:46:32Z</time></trkpt><trkpt lat="44.02414720918277" lon="3.299773312570381"><ele>491.0</ele><time>2026-04-02T13:46:33Z</time></trkpt><trkpt lat="44.02403655479273" lon="3.2998724769705223"><ele>492.5</ele><time>2026-04-02T13:46:34Z</time></trkpt><trkpt lat="44.02392654021914" lon="3.2999691844877637"><ele>494.0</ele><time>2026-04-02T13:46:35Z</time></trkpt><trkpt lat="44.023828158859374" lon="3.300072541528742"><ele>495.5</ele><time>2026-04-02T13:46:36Z</time></trkpt><trkpt lat="44.02374757094147" lon="3.3001812287375842"><ele>497.0</ele><time>2026-04-02T13:46:37Z</time></trkpt><trkpt lat="44.02368949898004" lon="3.300306573940902"><ele>497.0</ele><time>2026-04-02T13:46:38Z</time></trkpt><trkpt lat="44.02365070740495" lon="3.300448859617572"><ele>497.00000000000006</ele><time>2026-04-02T13:46:39Z</time></trkpt><trkpt lat="44.02363808533201" lon="3.3006017556717926"><ele>497.00000000000006</ele><time>2026-04-02T13:46:40Z</time></trkpt><trkpt lat="44.02364508469437" lon="3.300730979937166"><ele>497.0</ele><time>2026-04-02T13:46:41Z</time></trkpt><trkpt lat="44.02365664475529" lon="3.3008245693634652"><ele>497.0</ele><time>2026-04-02T13:46:42Z</time></trkpt><trkpt lat="44.023669549251615" lon="3.3009685191135003"><ele>496.8333333333333</ele><time>2026-04-02T13:46:44Z</time></trkpt><trkpt lat="44.02365312173822" lon="3.301139330030306"><ele>496.66666666666663</ele><time>2026-04-02T13:46:46Z</time></trkpt><trkpt lat="44.02360197402544" lon="3.3011993647664664"><ele>496.5</ele><time>2026-04-02T13:46:47Z</time></trkpt><trkpt lat="44.02356334721235" lon="3.3012708293273683"><ele>496.33333333333337</ele><time>2026-04-02T13:46:48Z</time></trkpt><trkpt lat="44.02348515983703" lon="3.3013247283820477"><ele>496.1666666666667</ele><time>2026-04-02T13:46:49Z</time></trkpt><trkpt lat="44.02339065976308" lon="3.3013700936050503"><ele>496.0</ele><time>2026-04-02T13:46:50Z</time></trkpt><trkpt lat="44.02329388099907" lon="3.3014206290754795"><ele>496.50000000000006</ele><time>2026-04-02T13:46:51Z</time></trkpt><trkpt lat="44.023208613483504" lon="3.3014711332122952"><ele>497.0</ele><time>2026-04-02T13:46:52Z</time></trkpt><trkpt lat="44.02312698993377" lon="3.3015170805836176"><ele>497.5</ele><time>2026-04-02T13:46:53Z</time></trkpt><trkpt lat="44.023047021523475" lon="3.301560637084518"><ele>498.0</ele><time>2026-04-02T13:46:54Z</time></trkpt><trkpt lat="44.022970201175085" lon="3.301605238653985"><ele>498.50000000000006</ele><time>2026-04-02T13:46:55Z</time></trkpt><trkpt lat="44.02289592247625" lon="3.3016484758298423"><ele>499.0</ele><time>2026-04-02T13:46:56Z</time></trkpt><trkpt lat="44.02283228452995" lon="3.3016887810561344"><ele>499.0</ele><time>2026-04-02T13:46:57Z</time></trkpt><trkpt lat="44.02277594250873" lon="3.3017282138075164"><ele>499.0</ele><time>2026-04-02T13:46:58Z</time></trkpt><trkpt lat="44.02267514169255" lon="3.3018023964257055"><ele>499.0</ele><time>2026-04-02T13:47:00Z</time></trkpt><trkpt lat="44.02257835865097" lon="3.3018753685524276"><ele>499.0</ele><time>2026-04-02T13:47:02Z</time></trkpt><trkpt lat="44.02248411791738" lon="3.3019281220265246"><ele>499.0</ele><time>2026-04-02T13:47:04Z</time></trkpt><trkpt lat="44.02241236625024" lon="3.3019794292096236"><ele>499.1666666666667</ele><time>2026-04-02T13:47:06Z</time></trkpt><trkpt lat="44.02232549245262" lon="3.302068353110367"><ele>499.33333333333337</ele><time>2026-04-02T13:47:08Z</time></trkpt><trkpt lat="44.02227217397135" lon="3.3021225217560826"><ele>499.5</ele><time>2026-04-02T13:47:09Z</time></trkpt><trkpt lat="44.02219769208922" lon="3.3022005676500052"><ele>499.66666666666663</ele><time>2026-04-02T13:47:11Z</time></trkpt><trkpt lat="44.02219328162488" lon="3.3023245061827744"><ele>499.8333333333333</ele><time>2026-04-02T13:47:13Z</time></trkpt><trkpt lat="44.022258491195636" lon="3.302371135521953"><ele>500.0</ele><time>2026-04-02T13:47:16Z</time></trkpt><trkpt lat="44.022343426076105" lon="3.3021951574381876"><ele>500.0</ele><time>2026-04-02T13:47:17Z</time></trkpt><trkpt lat="44.02229708877324" lon="3.302285454056907"><ele>500.0</ele><time>2026-04-02T13:47:18Z</time></trkpt><trkpt lat="44.02231073644394" lon="3.302195102214527"><ele>500.0</ele><time>2026-04-02T13:47:19Z</time></trkpt><trkpt lat="44.02236429407906" lon="3.3020287920163205"><ele>500.0</ele><time>2026-04-02T13:47:21Z</time></trkpt><trkpt lat="44.022427282126415" lon="3.30195182207709"><ele>500.0</ele><time>2026-04-02T13:47:22Z</time></trkpt><trkpt lat="44.02247001536469" lon="3.3017842902268324"><ele>499.99999999999994</ele><time>2026-04-02T13:47:24Z</time></trkpt><trkpt lat="44.02248013697276" lon="3.3016830631209966"><ele>500.0</ele><time>2026-04-02T13:47:25Z</time></trkpt><trkpt lat="44.02249383895604" lon="3.301588088272928"><ele>500.0</ele><time>2026-04-02T13:47:26Z</time></trkpt><trkpt lat="44.022509762155345" lon="3.3014370087737968"><ele>500.0</ele><time>2026-04-02T13:47:28Z</time></trkpt><trkpt lat="44.02250908800267" lon="3.301301861202244"><ele>499.99999999999994</ele><time>2026-04-02T13:47:30Z</time></trkpt><trkpt lat="44.02249376922624" lon="3.3011871189878152"><ele>500.0</ele><time>2026-04-02T13:47:32Z</time></trkpt><trkpt lat="44.022477154517496" lon="3.301063628319357"><ele>499.6</ele><time>2026-04-02T13:47:34Z</time></trkpt><trkpt lat="44.02246154137613" lon="3.300914063105789"><ele>499.2</ele><time>2026-04-02T13:47:36Z</time></trkpt><trkpt lat="44.0224594337915" lon="3.300761961472916"><ele>498.79999999999995</ele><time>2026-04-02T13:47:38Z</time></trkpt><trkpt lat="44.02242880491728" lon="3.3006307480080763"><ele>498.4</ele><time>2026-04-02T13:47:40Z</time></trkpt><trkpt lat="44.022421685832164" lon="3.300526543460483"><ele>498.0</ele><time>2026-04-02T13:47:42Z</time></trkpt><trkpt lat="44.02245511996156" lon="3.300434682695714"><ele>498.0</ele><time>2026-04-02T13:47:45Z</time></trkpt><trkpt lat="44.02250445413137" lon="3.3003493315715713"><ele>497.99999999999994</ele><time>2026-04-02T13:47:48Z</time></trkpt><trkpt lat="44.02255025326165" lon="3.3002700957060913"><ele>498.0</ele><time>2026-04-02T13:47:53Z</time></trkpt><trkpt lat="44.02248878942365" lon="3.300320582850828"><ele>498.0</ele><time>2026-04-02T13:48:18Z</time></trkpt><trkpt lat="44.02246042994656" lon="3.300406119696254"><ele>497.99999999999994</ele><time>2026-04-02T13:48:23Z</time></trkpt><trkpt lat="44.022403703217286" lon="3.30035793235153"><ele>498.0</ele><time>2026-04-02T13:48:36Z</time></trkpt><trkpt lat="44.02233431785505" lon="3.300351702341209"><ele>498.0</ele><time>2026-04-02T13:48:45Z</time></trkpt><trkpt lat="44.02240595819417" lon="3.3003901728079414"><ele>498.0</ele><time>2026-04-02T13:49:00.553Z</time></trkpt><trkpt lat="44.02238203710968" lon="3.3003022721237616"><ele>497.99999999999994</ele><time>2026-04-02T13:49:14.026Z</time></trkpt><trkpt lat="44.02244633301655" lon="3.3002932309506527"><ele>498.0</ele><time>2026-04-02T13:49:53Z</time></trkpt><trkpt lat="44.02247745023732" lon="3.300214868441647"><ele>498.0</ele><time>2026-04-02T13:50:00Z</time></trkpt><trkpt lat="44.022428206497224" lon="3.300304871875339"><ele>497.99999999999994</ele><time>2026-04-02T13:51:46Z</time></trkpt><trkpt lat="44.022428797980645" lon="3.300404488914466"><ele>498.0</ele><time>2026-04-02T13:55:26Z</time></trkpt><trkpt lat="44.02238684778415" lon="3.3004707423999515"><ele>498.0</ele><time>2026-04-02T13:55:28Z</time></trkpt><trkpt lat="44.02239710467977" lon="3.3005963602634885"><ele>498.0</ele><time>2026-04-02T13:55:30Z</time></trkpt><trkpt lat="44.02242277824618" lon="3.3007840486236755"><ele>497.99999999999994</ele><time>2026-04-02T13:55:32Z</time></trkpt><trkpt lat="44.0224351356499" lon="3.300873634102005"><ele>497.99999999999994</ele><time>2026-04-02T13:55:33Z</time></trkpt><trkpt lat="44.022452158795474" lon="3.301028927493732"><ele>498.0</ele><time>2026-04-02T13:55:35Z</time></trkpt><trkpt lat="44.02245806703838" lon="3.3011695930771645"><ele>498.0</ele><time>2026-04-02T13:55:37Z</time></trkpt><trkpt lat="44.022476210244385" lon="3.3012945766619994"><ele>498.0</ele><time>2026-04-02T13:55:39Z</time></trkpt><trkpt lat="44.02248114909696" lon="3.301402015429234"><ele>498.0</ele><time>2026-04-02T13:55:41Z</time></trkpt><trkpt lat="44.022470736388186" lon="3.301576492125543"><ele>498.0</ele><time>2026-04-02T13:55:43Z</time></trkpt><trkpt lat="44.022454964971246" lon="3.301675231223699"><ele>498.0</ele><time>2026-04-02T13:55:44Z</time></trkpt><trkpt lat="44.022431536679115" lon="3.301757480422195"><ele>498.0</ele><time>2026-04-02T13:55:45Z</time></trkpt><trkpt lat="44.02240914615606" lon="3.3018815074919137"><ele>498.0</ele><time>2026-04-02T13:55:47Z</time></trkpt><trkpt lat="44.022506394690225" lon="3.3019633500516345"><ele>498.2</ele><time>2026-04-02T13:55:51Z</time></trkpt><trkpt lat="44.02261300135446" lon="3.301882404897268"><ele>498.4</ele><time>2026-04-02T13:55:53Z</time></trkpt><trkpt lat="44.02267262580109" lon="3.3018352341376613"><ele>498.59999999999997</ele><time>2026-04-02T13:55:54Z</time></trkpt><trkpt lat="44.02278760277967" lon="3.301754877685024"><ele>498.79999999999995</ele><time>2026-04-02T13:55:56Z</time></trkpt><trkpt lat="44.022865963539445" lon="3.3017197373765588"><ele>499.0</ele><time>2026-04-02T13:55:58Z</time></trkpt><trkpt lat="44.02292745528446" lon="3.3017755304826455"><ele>499.00000000000006</ele><time>2026-04-02T13:56:00Z</time></trkpt><trkpt lat="44.02295039763724" lon="3.3018653741650206"><ele>499.0</ele><time>2026-04-02T13:56:02Z</time></trkpt><trkpt lat="44.0229909822605" lon="3.3019431878932686"><ele>499.0</ele><time>2026-04-02T13:56:05Z</time></trkpt><trkpt lat="44.02295247206302" lon="3.301849146404735"><ele>499.0</ele><time>2026-04-02T14:00:17Z</time></trkpt><trkpt lat="44.02290935322944" lon="3.3017642123991475"><ele>499.00000000000006</ele><time>2026-04-02T14:00:20Z</time></trkpt><trkpt lat="44.02302599693303" lon="3.301643090907607"><ele>499.0</ele><time>2026-04-02T14:00:30Z</time></trkpt><trkpt lat="44.02309350004308" lon="3.3016169839011678"><ele>499.00000000000006</ele><time>2026-04-02T14:00:31Z</time></trkpt><trkpt lat="44.023155483890434" lon="3.3015860974481717"><ele>499.0</ele><time>2026-04-02T14:00:32Z</time></trkpt><trkpt lat="44.02322108196519" lon="3.3015571867632527"><ele>499.0</ele><time>2026-04-02T14:00:33Z</time></trkpt><trkpt lat="44.023294871825044" lon="3.301515588373959"><ele>499.0</ele><time>2026-04-02T14:00:34Z</time></trkpt><trkpt lat="44.02337101291644" lon="3.3014719708465363"><ele>499.00000000000006</ele><time>2026-04-02T14:00:35Z</time></trkpt><trkpt lat="44.02344263451143" lon="3.3014274260294667"><ele>499.0</ele><time>2026-04-02T14:00:36Z</time></trkpt><trkpt lat="44.023511402589456" lon="3.3013849123942074"><ele>498.50000000000006</ele><time>2026-04-02T14:00:37Z</time></trkpt><trkpt lat="44.023578405610074" lon="3.3013333286745845"><ele>498.0</ele><time>2026-04-02T14:00:38Z</time></trkpt><trkpt lat="44.02363109586159" lon="3.3012577233562994"><ele>497.5</ele><time>2026-04-02T14:00:39Z</time></trkpt><trkpt lat="44.02367298360245" lon="3.3011539685533218"><ele>497.0</ele><time>2026-04-02T14:00:40Z</time></trkpt><trkpt lat="44.02369695504428" lon="3.3010415904946093"><ele>496.50000000000006</ele><time>2026-04-02T14:00:41Z</time></trkpt><trkpt lat="44.02370174761658" lon="3.300913981707396"><ele>496.0</ele><time>2026-04-02T14:00:42Z</time></trkpt><trkpt lat="44.02370176885766" lon="3.300788402282469"><ele>496.0</ele><time>2026-04-02T14:00:43Z</time></trkpt><trkpt lat="44.02369975350183" lon="3.3006623179688277"><ele>496.0</ele><time>2026-04-02T14:00:44Z</time></trkpt><trkpt lat="44.02369947419488" lon="3.300540109460496"><ele>496.0</ele><time>2026-04-02T14:00:45Z</time></trkpt><trkpt lat="44.02371400957433" lon="3.3004153232765288"><ele>496.0</ele><time>2026-04-02T14:00:46Z</time></trkpt><trkpt lat="44.02375161034679" lon="3.300276487875434"><ele>496.0</ele><time>2026-04-02T14:00:47Z</time></trkpt><trkpt lat="44.0238198923851" lon="3.300159179017396"><ele>496.25</ele><time>2026-04-02T14:00:48Z</time></trkpt><trkpt lat="44.0239056316626" lon="3.3000474795568415"><ele>496.5</ele><time>2026-04-02T14:00:49Z</time></trkpt><trkpt lat="44.02401229300445" lon="3.29994690589769"><ele>496.75</ele><time>2026-04-02T14:00:50Z</time></trkpt><trkpt lat="44.02412230214695" lon="3.2998577138466962"><ele>497.0</ele><time>2026-04-02T14:00:51Z</time></trkpt><trkpt lat="44.02423100833896" lon="3.2997654762778046"><ele>495.5</ele><time>2026-04-02T14:00:52Z</time></trkpt><trkpt lat="44.02434183797622" lon="3.2996713701574265"><ele>494.0</ele><time>2026-04-02T14:00:53Z</time></trkpt><trkpt lat="44.024453599089426" lon="3.2995727071495433"><ele>492.5</ele><time>2026-04-02T14:00:54Z</time></trkpt><trkpt lat="44.02455986089259" lon="3.2994748481366534"><ele>491.0</ele><time>2026-04-02T14:00:55Z</time></trkpt><trkpt lat="44.0246663087835" lon="3.2993758240875244"><ele>491.0</ele><time>2026-04-02T14:00:56Z</time></trkpt><trkpt lat="44.024773190983254" lon="3.2992780279199576"><ele>491.0</ele><time>2026-04-02T14:00:57Z</time></trkpt><trkpt lat="44.02487764782061" lon="3.2991828521412696"><ele>491.0</ele><time>2026-04-02T14:00:58Z</time></trkpt><trkpt lat="44.024981824685085" lon="3.299088373892433"><ele>491.0</ele><time>2026-04-02T14:00:59Z</time></trkpt><trkpt lat="44.02508405771591" lon="3.2989951300567597"><ele>490.25</ele><time>2026-04-02T14:01:00Z</time></trkpt><trkpt lat="44.025179123154004" lon="3.2989096133767517"><ele>489.5</ele><time>2026-04-02T14:01:01Z</time></trkpt><trkpt lat="44.02525634006274" lon="3.298837936043852"><ele>488.75</ele><time>2026-04-02T14:01:02Z</time></trkpt><trkpt lat="44.02533333330008" lon="3.2987613699015297"><ele>488.0</ele><time>2026-04-02T14:01:04Z</time></trkpt><trkpt lat="44.025168828819744" lon="3.2985550851072634"><ele>488.0</ele><time>2026-04-02T14:01:06Z</time></trkpt><trkpt lat="44.025058560297566" lon="3.298516111959118"><ele>488.0</ele><time>2026-04-02T14:01:07Z</time></trkpt><trkpt lat="44.02494313854502" lon="3.2984708007510255"><ele>488.0</ele><time>2026-04-02T14:01:08Z</time></trkpt><trkpt lat="44.02483163821265" lon="3.298420385177197"><ele>488.0</ele><time>2026-04-02T14:01:09Z</time></trkpt><trkpt lat="44.02469176778558" lon="3.2983917051257485"><ele>488.5</ele><time>2026-04-02T14:01:10Z</time></trkpt><trkpt lat="44.024551546973214" lon="3.2983679160788113"><ele>489.0</ele><time>2026-04-02T14:01:11Z</time></trkpt><trkpt lat="44.024409985412284" lon="3.2983438758790946"><ele>489.5</ele><time>2026-04-02T14:01:12Z</time></trkpt><trkpt lat="44.024275950371866" lon="3.298309154326394"><ele>490.0</ele><time>2026-04-02T14:01:13Z</time></trkpt><trkpt lat="44.024155484739815" lon="3.298226702173349"><ele>491.75</ele><time>2026-04-02T14:01:14Z</time></trkpt><trkpt lat="44.024042754262105" lon="3.29813308421583"><ele>493.5</ele><time>2026-04-02T14:01:15Z</time></trkpt><trkpt lat="44.02392782530994" lon="3.298038179273503"><ele>495.25</ele><time>2026-04-02T14:01:16Z</time></trkpt><trkpt lat="44.023839902604266" lon="3.297899652123345"><ele>497.0</ele><time>2026-04-02T14:01:17Z</time></trkpt><trkpt lat="44.023772275974075" lon="3.2977384651351485"><ele>498.0</ele><time>2026-04-02T14:01:18Z</time></trkpt><trkpt lat="44.02371389716917" lon="3.297553399402338"><ele>499.0</ele><time>2026-04-02T14:01:19Z</time></trkpt><trkpt lat="44.02366736503499" lon="3.2973549745479582"><ele>500.0</ele><time>2026-04-02T14:01:20Z</time></trkpt><trkpt lat="44.02361443470168" lon="3.2971532202983633"><ele>500.0</ele><time>2026-04-02T14:01:21Z</time></trkpt><trkpt lat="44.023547565029936" lon="3.296962241294019"><ele>500.0</ele><time>2026-04-02T14:01:22Z</time></trkpt><trkpt lat="44.02347395988377" lon="3.296769768259948"><ele>500.0</ele><time>2026-04-02T14:01:23Z</time></trkpt><trkpt lat="44.02340053691125" lon="3.296577920380159"><ele>500.5</ele><time>2026-04-02T14:01:24Z</time></trkpt><trkpt lat="44.02332094585345" lon="3.2964038095486057"><ele>501.0</ele><time>2026-04-02T14:01:25Z</time></trkpt><trkpt lat="44.023223729632726" lon="3.296246387741835"><ele>501.5</ele><time>2026-04-02T14:01:26Z</time></trkpt><trkpt lat="44.023121784086975" lon="3.296100276836592"><ele>502.0</ele><time>2026-04-02T14:01:27Z</time></trkpt><trkpt lat="44.023034691114994" lon="3.295934702484915"><ele>502.0</ele><time>2026-04-02T14:01:28Z</time></trkpt><trkpt lat="44.02302811809408" lon="3.295743598137168"><ele>502.0</ele><time>2026-04-02T14:01:29Z</time></trkpt><trkpt lat="44.02302003689044" lon="3.2955567997220445"><ele>502.0</ele><time>2026-04-02T14:01:30Z</time></trkpt><trkpt lat="44.02301102013749" lon="3.295375999615164"><ele>502.0</ele><time>2026-04-02T14:01:31Z</time></trkpt><trkpt lat="44.023010934441274" lon="3.2952167907555467"><ele>502.6</ele><time>2026-04-02T14:01:32Z</time></trkpt><trkpt lat="44.022997423712646" lon="3.2950867137496926"><ele>503.20000000000005</ele><time>2026-04-02T14:01:33Z</time></trkpt><trkpt lat="44.023045029608255" lon="3.2950171664207866"><ele>503.8</ele><time>2026-04-02T14:01:34Z</time></trkpt><trkpt lat="44.02317752283219" lon="3.2950375515804495"><ele>504.4</ele><time>2026-04-02T14:01:36Z</time></trkpt><trkpt lat="44.02326357586568" lon="3.295113778746601"><ele>505.0</ele><time>2026-04-02T14:01:37Z</time></trkpt><trkpt lat="44.0233301267076" lon="3.2951752507964343"><ele>505.00000000000006</ele><time>2026-04-02T14:01:38Z</time></trkpt><trkpt lat="44.023405718863756" lon="3.2952229482583815"><ele>505.0</ele><time>2026-04-02T14:01:40Z</time></trkpt><trkpt lat="44.02332532191529" lon="3.2951630996284123"><ele>505.0</ele><time>2026-04-02T14:03:15Z</time></trkpt><trkpt lat="44.02326276851107" lon="3.2950773641824105"><ele>505.0</ele><time>2026-04-02T14:03:16Z</time></trkpt><trkpt lat="44.02317745055712" lon="3.2950547497178007"><ele>505.00000000000006</ele><time>2026-04-02T14:03:17Z</time></trkpt><trkpt lat="44.0230913455883" lon="3.2950221923332195"><ele>505.0</ele><time>2026-04-02T14:03:18Z</time></trkpt><trkpt lat="44.02302439405798" lon="3.2950387422918292"><ele>505.0</ele><time>2026-04-02T14:03:19Z</time></trkpt><trkpt lat="44.022981747463525" lon="3.2951175867381015"><ele>505.0</ele><time>2026-04-02T14:03:20Z</time></trkpt><trkpt lat="44.02296426130788" lon="3.295235187109163"><ele>505.0</ele><time>2026-04-02T14:03:21Z</time></trkpt><trkpt lat="44.02296856021936" lon="3.2953802820452727"><ele>505.0</ele><time>2026-04-02T14:03:22Z</time></trkpt><trkpt lat="44.022984145161814" lon="3.2955517123075007"><ele>505.0</ele><time>2026-04-02T14:03:23Z</time></trkpt><trkpt lat="44.022997776927866" lon="3.2957245127599153"><ele>504.25</ele><time>2026-04-02T14:03:24Z</time></trkpt><trkpt lat="44.02301250741449" lon="3.2958819478170773"><ele>503.5</ele><time>2026-04-02T14:03:25Z</time></trkpt><trkpt lat="44.02304618298648" lon="3.296023298590738"><ele>502.75</ele><time>2026-04-02T14:03:26Z</time></trkpt><trkpt lat="44.02310584247512" lon="3.296148514264821"><ele>502.0</ele><time>2026-04-02T14:03:27Z</time></trkpt><trkpt lat="44.023181434139595" lon="3.29628419373832"><ele>501.5</ele><time>2026-04-02T14:03:28Z</time></trkpt><trkpt lat="44.023263146005704" lon="3.2964199953881654"><ele>501.0</ele><time>2026-04-02T14:03:29Z</time></trkpt><trkpt lat="44.02334706055949" lon="3.296560395430133"><ele>500.5</ele><time>2026-04-02T14:03:30Z</time></trkpt><trkpt lat="44.02342533179892" lon="3.2967056777101256"><ele>500.0</ele><time>2026-04-02T14:03:31Z</time></trkpt><trkpt lat="44.02349235854108" lon="3.2968571609557005"><ele>500.0</ele><time>2026-04-02T14:03:32Z</time></trkpt><trkpt lat="44.023549564034646" lon="3.297009853441255"><ele>500.0</ele><time>2026-04-02T14:03:33Z</time></trkpt><trkpt lat="44.02360187277639" lon="3.297163360243466"><ele>500.0</ele><time>2026-04-02T14:03:34Z</time></trkpt><trkpt lat="44.02364851824798" lon="3.2973149447110885"><ele>500.0</ele><time>2026-04-02T14:03:35Z</time></trkpt><trkpt lat="44.0236930238767" lon="3.2974588385265866"><ele>500.0</ele><time>2026-04-02T14:03:36Z</time></trkpt><trkpt lat="44.02373708529934" lon="3.2976005380363356"><ele>500.0</ele><time>2026-04-02T14:03:37Z</time></trkpt><trkpt lat="44.023787864356535" lon="3.2977437616597056"><ele>500.0</ele><time>2026-04-02T14:03:38Z</time></trkpt><trkpt lat="44.02384705509333" lon="3.29788866246482"><ele>500.0</ele><time>2026-04-02T14:03:39Z</time></trkpt><trkpt lat="44.02391784859362" lon="3.29803416709056"><ele>499.25</ele><time>2026-04-02T14:03:40Z</time></trkpt><trkpt lat="44.02401008693749" lon="3.298159693485299"><ele>498.5</ele><time>2026-04-02T14:03:41Z</time></trkpt><trkpt lat="44.024118481667564" lon="3.2982659798359384"><ele>497.75</ele><time>2026-04-02T14:03:42Z</time></trkpt><trkpt lat="44.0242421932294" lon="3.2983408893142316"><ele>497.0</ele><time>2026-04-02T14:03:43Z</time></trkpt><trkpt lat="44.02437117993251" lon="3.2983872745917644"><ele>495.25</ele><time>2026-04-02T14:03:44Z</time></trkpt><trkpt lat="44.02450532920111" lon="3.2984088513524066"><ele>493.5</ele><time>2026-04-02T14:03:45Z</time></trkpt><trkpt lat="44.02463179205376" lon="3.298426829966203"><ele>491.75</ele><time>2026-04-02T14:03:46Z</time></trkpt><trkpt lat="44.0247530403915" lon="3.298450518836191"><ele>490.0</ele><time>2026-04-02T14:03:47Z</time></trkpt><trkpt lat="44.02487148709357" lon="3.2984806369565103"><ele>489.6</ele><time>2026-04-02T14:03:48Z</time></trkpt><trkpt lat="44.0249856943854" lon="3.298520205756761"><ele>489.2</ele><time>2026-04-02T14:03:49Z</time></trkpt><trkpt lat="44.02508102925729" lon="3.298566532727031"><ele>488.79999999999995</ele><time>2026-04-02T14:03:50Z</time></trkpt><trkpt lat="44.02516422471825" lon="3.298615948427306"><ele>488.4</ele><time>2026-04-02T14:03:51Z</time></trkpt><trkpt lat="44.0252299042623" lon="3.298663920503495"><ele>488.0</ele><time>2026-04-02T14:03:52Z</time></trkpt><trkpt lat="44.02527185030964" lon="3.298745169823906"><ele>488.0</ele><time>2026-04-02T14:03:54Z</time></trkpt><trkpt lat="44.02543660127542" lon="3.29867036210765"><ele>488.0</ele><time>2026-04-02T14:03:59Z</time></trkpt><trkpt lat="44.025523428402536" lon="3.298580402302824"><ele>488.0</ele><time>2026-04-02T14:04:00Z</time></trkpt><trkpt lat="44.025628739685736" lon="3.2984863954386388"><ele>488.0</ele><time>2026-04-02T14:04:01Z</time></trkpt><trkpt lat="44.02573557062061" lon="3.2983920996231713"><ele>487.0</ele><time>2026-04-02T14:04:02Z</time></trkpt><trkpt lat="44.02585018079451" lon="3.298285462652874"><ele>486.0</ele><time>2026-04-02T14:04:03Z</time></trkpt><trkpt lat="44.02597019314131" lon="3.2981715914009766"><ele>485.0</ele><time>2026-04-02T14:04:04Z</time></trkpt><trkpt lat="44.02609477958524" lon="3.298059690838842"><ele>484.0</ele><time>2026-04-02T14:04:05Z</time></trkpt><trkpt lat="44.02620831824219" lon="3.2979569803188227"><ele>484.75</ele><time>2026-04-02T14:04:06Z</time></trkpt><trkpt lat="44.02632110960036" lon="3.297858350870592"><ele>485.5</ele><time>2026-04-02T14:04:07Z</time></trkpt><trkpt lat="44.02644914390213" lon="3.297749281396549"><ele>486.25</ele><time>2026-04-02T14:04:08Z</time></trkpt><trkpt lat="44.02658164666221" lon="3.2976321746422337"><ele>487.0</ele><time>2026-04-02T14:04:09Z</time></trkpt><trkpt lat="44.026715451015754" lon="3.297516492467282"><ele>487.0</ele><time>2026-04-02T14:04:10Z</time></trkpt><trkpt lat="44.02684995130517" lon="3.297401595204092"><ele>487.0</ele><time>2026-04-02T14:04:11Z</time></trkpt><trkpt lat="44.02698809975508" lon="3.2972876530568986"><ele>487.0</ele><time>2026-04-02T14:04:12Z</time></trkpt><trkpt lat="44.02713069547528" lon="3.2971784268985056"><ele>490.33333333333337</ele><time>2026-04-02T14:04:13Z</time></trkpt><trkpt lat="44.027280649422075" lon="3.2970739598413896"><ele>493.66666666666663</ele><time>2026-04-02T14:04:14Z</time></trkpt><trkpt lat="44.0274283188005" lon="3.2969671057599514"><ele>497.0</ele><time>2026-04-02T14:04:15Z</time></trkpt><trkpt lat="44.02757916276352" lon="3.2968425824990124"><ele>497.0</ele><time>2026-04-02T14:04:16Z</time></trkpt><trkpt lat="44.02773622549142" lon="3.296704834398581"><ele>497.0</ele><time>2026-04-02T14:04:17Z</time></trkpt><trkpt lat="44.02789021964325" lon="3.2965608083786635"><ele>497.0</ele><time>2026-04-02T14:04:18Z</time></trkpt><trkpt lat="44.028047692056376" lon="3.296399615482677"><ele>498.66666666666663</ele><time>2026-04-02T14:04:19Z</time></trkpt><trkpt lat="44.02820638659128" lon="3.2962362895986037"><ele>500.33333333333337</ele><time>2026-04-02T14:04:20Z</time></trkpt><trkpt lat="44.028365935575145" lon="3.2960830883966103"><ele>502.0</ele><time>2026-04-02T14:04:21Z</time></trkpt><trkpt lat="44.02852234108962" lon="3.2959220154685185"><ele>502.0</ele><time>2026-04-02T14:04:22Z</time></trkpt><trkpt lat="44.02866056810288" lon="3.2957583780279234"><ele>502.0</ele><time>2026-04-02T14:04:23Z</time></trkpt><trkpt lat="44.02879539445293" lon="3.2956003145592274"><ele>502.0</ele><time>2026-04-02T14:04:24Z</time></trkpt><trkpt lat="44.02892047626366" lon="3.2954420550631087"><ele>497.0</ele><time>2026-04-02T14:04:25Z</time></trkpt><trkpt lat="44.029041045721755" lon="3.295278775859484"><ele>492.0</ele><time>2026-04-02T14:04:26Z</time></trkpt><trkpt lat="44.02915170437312" lon="3.295122764972614"><ele>487.0</ele><time>2026-04-02T14:04:27Z</time></trkpt><trkpt lat="44.029255009097035" lon="3.294950673705039"><ele>487.0</ele><time>2026-04-02T14:04:28Z</time></trkpt><trkpt lat="44.029339638554625" lon="3.294784026289134"><ele>487.0</ele><time>2026-04-02T14:04:29Z</time></trkpt><trkpt lat="44.02940390060113" lon="3.294605426308407"><ele>487.0</ele><time>2026-04-02T14:04:30Z</time></trkpt><trkpt lat="44.029447640687614" lon="3.2944021102473346"><ele>487.0</ele><time>2026-04-02T14:04:31Z</time></trkpt><trkpt lat="44.02945659378498" lon="3.294187084125046"><ele>489.33333333333337</ele><time>2026-04-02T14:04:32Z</time></trkpt><trkpt lat="44.029436678325766" lon="3.293964817238808"><ele>491.66666666666663</ele><time>2026-04-02T14:04:33Z</time></trkpt><trkpt lat="44.02939515820885" lon="3.2937443851746604"><ele>494.0</ele><time>2026-04-02T14:04:34Z</time></trkpt><trkpt lat="44.02934127097615" lon="3.2935225128453944"><ele>494.0</ele><time>2026-04-02T14:04:35Z</time></trkpt><trkpt lat="44.02932813600464" lon="3.293290562842884"><ele>494.0</ele><time>2026-04-02T14:04:36Z</time></trkpt><trkpt lat="44.02934071502412" lon="3.2930605745474524"><ele>494.0</ele><time>2026-04-02T14:04:37Z</time></trkpt><trkpt lat="44.029364675572246" lon="3.292821661216436"><ele>493.66666666666663</ele><time>2026-04-02T14:04:38Z</time></trkpt><trkpt lat="44.029390593390005" lon="3.292581326715778"><ele>493.33333333333337</ele><time>2026-04-02T14:04:39Z</time></trkpt><trkpt lat="44.0294013028982" lon="3.2923401153122085"><ele>493.0</ele><time>2026-04-02T14:04:40Z</time></trkpt><trkpt lat="44.02943275674313" lon="3.292105897148933"><ele>495.6666666666667</ele><time>2026-04-02T14:04:41Z</time></trkpt><trkpt lat="44.029458808748124" lon="3.2918668266626283"><ele>498.33333333333337</ele><time>2026-04-02T14:04:42Z</time></trkpt><trkpt lat="44.029480990278984" lon="3.2916396844606117"><ele>501.0</ele><time>2026-04-02T14:04:43Z</time></trkpt><trkpt lat="44.02950489226582" lon="3.2914129801166387"><ele>503.66666666666663</ele><time>2026-04-02T14:04:44Z</time></trkpt><trkpt lat="44.02953481841478" lon="3.29119184289065"><ele>506.3333333333333</ele><time>2026-04-02T14:04:45Z</time></trkpt><trkpt lat="44.029567686909004" lon="3.2909737929741874"><ele>509.0</ele><time>2026-04-02T14:04:46Z</time></trkpt><trkpt lat="44.0296110504045" lon="3.2907557651124963"><ele>516.0</ele><time>2026-04-02T14:04:47Z</time></trkpt><trkpt lat="44.02968939045972" lon="3.2905489899065845"><ele>523.0</ele><time>2026-04-02T14:04:48Z</time></trkpt><trkpt lat="44.02976970302509" lon="3.290341595829012"><ele>530.0</ele><time>2026-04-02T14:04:49Z</time></trkpt><trkpt lat="44.029857401693555" lon="3.2901377329697246"><ele>530.0</ele><time>2026-04-02T14:04:50Z</time></trkpt><trkpt lat="44.02995962146635" lon="3.289944709531517"><ele>530.0</ele><time>2026-04-02T14:04:51Z</time></trkpt><trkpt lat="44.0300742961496" lon="3.2897630937234115"><ele>530.0</ele><time>2026-04-02T14:04:52Z</time></trkpt><trkpt lat="44.030205984132856" lon="3.289598371014939"><ele>526.0</ele><time>2026-04-02T14:04:53Z</time></trkpt><trkpt lat="44.03034595585394" lon="3.289443453936274"><ele>522.0</ele><time>2026-04-02T14:04:54Z</time></trkpt><trkpt lat="44.030483977454075" lon="3.2892911583369018"><ele>518.0</ele><time>2026-04-02T14:04:55Z</time></trkpt><trkpt lat="44.03061374943286" lon="3.2891226162072935"><ele>518.0</ele><time>2026-04-02T14:04:56Z</time></trkpt><trkpt lat="44.03074757778589" lon="3.2889705472576045"><ele>518.0</ele><time>2026-04-02T14:04:57Z</time></trkpt><trkpt lat="44.03087743681182" lon="3.2888146311895268"><ele>518.0</ele><time>2026-04-02T14:04:58Z</time></trkpt><trkpt lat="44.03099961102015" lon="3.2886500255327453"><ele>515.6666666666666</ele><time>2026-04-02T14:04:59Z</time></trkpt><trkpt lat="44.03111038681251" lon="3.288474208225155"><ele>513.3333333333334</ele><time>2026-04-02T14:05:00Z</time></trkpt><trkpt lat="44.031211320164395" lon="3.288294136704457"><ele>511.0</ele><time>2026-04-02T14:05:01Z</time></trkpt><trkpt lat="44.03131093151733" lon="3.288113061721687"><ele>514.0</ele><time>2026-04-02T14:05:02Z</time></trkpt><trkpt lat="44.031417680822756" lon="3.287942969494282"><ele>517.0</ele><time>2026-04-02T14:05:03Z</time></trkpt><trkpt lat="44.03155428163381" lon="3.2878300292318374"><ele>520.0</ele><time>2026-04-02T14:05:04Z</time></trkpt><trkpt lat="44.031690473986956" lon="3.2877370678492315"><ele>520.0</ele><time>2026-04-02T14:05:05Z</time></trkpt><trkpt lat="44.03184110588325" lon="3.287671147355857"><ele>520.0</ele><time>2026-04-02T14:05:06Z</time></trkpt><trkpt lat="44.03199700913808" lon="3.2876198133657044"><ele>520.0</ele><time>2026-04-02T14:05:07Z</time></trkpt><trkpt lat="44.0321622873271" lon="3.287563356664252"><ele>520.0</ele><time>2026-04-02T14:05:08Z</time></trkpt><trkpt lat="44.03232969925332" lon="3.287568893618297"><ele>520.0</ele><time>2026-04-02T14:05:09Z</time></trkpt><trkpt lat="44.03249326055951" lon="3.2875749479178364"><ele>520.0</ele><time>2026-04-02T14:05:10Z</time></trkpt><trkpt lat="44.032654410248696" lon="3.2875826453277837"><ele>516.3333333333334</ele><time>2026-04-02T14:05:11Z</time></trkpt><trkpt lat="44.03280865676585" lon="3.2876378939970134"><ele>512.6666666666666</ele><time>2026-04-02T14:05:12Z</time></trkpt><trkpt lat="44.03295759990633" lon="3.2877123587606762"><ele>509.0</ele><time>2026-04-02T14:05:13Z</time></trkpt><trkpt lat="44.033094965504056" lon="3.2878032013510485"><ele>509.0</ele><time>2026-04-02T14:05:14Z</time></trkpt><trkpt lat="44.033213689891525" lon="3.287938353048819"><ele>509.0</ele><time>2026-04-02T14:05:15Z</time></trkpt><trkpt lat="44.03333394229501" lon="3.288063438324836"><ele>509.0</ele><time>2026-04-02T14:05:16Z</time></trkpt><trkpt lat="44.033456393036104" lon="3.2881811784382564"><ele>507.66666666666663</ele><time>2026-04-02T14:05:17Z</time></trkpt><trkpt lat="44.033569567008165" lon="3.2883337823380105"><ele>506.33333333333337</ele><time>2026-04-02T14:05:18Z</time></trkpt><trkpt lat="44.03364904957024" lon="3.2885240918694136"><ele>505.0</ele><time>2026-04-02T14:05:19Z</time></trkpt><trkpt lat="44.03375315185552" lon="3.288702786686179"><ele>505.0</ele><time>2026-04-02T14:05:20Z</time></trkpt><trkpt lat="44.033848620924694" lon="3.288883563086267"><ele>505.0</ele><time>2026-04-02T14:05:21Z</time></trkpt><trkpt lat="44.033970839030296" lon="3.289021113419757"><ele>505.0</ele><time>2026-04-02T14:05:22Z</time></trkpt><trkpt lat="44.03411145727623" lon="3.2891157922218537"><ele>505.6666666666667</ele><time>2026-04-02T14:05:23Z</time></trkpt><trkpt lat="44.03426298786061" lon="3.289193848669355"><ele>506.33333333333337</ele><time>2026-04-02T14:05:24Z</time></trkpt><trkpt lat="44.034421187804455" lon="3.28926178539586"><ele>507.0</ele><time>2026-04-02T14:05:25Z</time></trkpt><trkpt lat="44.03458593933328" lon="3.289309119510496"><ele>507.0</ele><time>2026-04-02T14:05:26Z</time></trkpt><trkpt lat="44.03476119112046" lon="3.289328034139719"><ele>507.0</ele><time>2026-04-02T14:05:27Z</time></trkpt><trkpt lat="44.03493964202735" lon="3.2893260559633615"><ele>507.0</ele><time>2026-04-02T14:05:28Z</time></trkpt><trkpt lat="44.03511298209833" lon="3.289321339909073"><ele>510.33333333333337</ele><time>2026-04-02T14:05:29Z</time></trkpt><trkpt lat="44.03528602480232" lon="3.289322900180266"><ele>513.6666666666667</ele><time>2026-04-02T14:05:30Z</time></trkpt><trkpt lat="44.03545935508365" lon="3.2893369985370082"><ele>517.0</ele><time>2026-04-02T14:05:31Z</time></trkpt><trkpt lat="44.035625797484016" lon="3.2893992630217337"><ele>517.0</ele><time>2026-04-02T14:05:32Z</time></trkpt><trkpt lat="44.035783095117814" lon="3.2894811340827395"><ele>517.0</ele><time>2026-04-02T14:05:33Z</time></trkpt><trkpt lat="44.035939234544905" lon="3.2895698014030597"><ele>517.0</ele><time>2026-04-02T14:05:34Z</time></trkpt><trkpt lat="44.036101593538454" lon="3.289651938506317"><ele>518.3333333333334</ele><time>2026-04-02T14:05:35Z</time></trkpt><trkpt lat="44.0362646666504" lon="3.289747658113346"><ele>519.6666666666666</ele><time>2026-04-02T14:05:36Z</time></trkpt><trkpt lat="44.03642865343355" lon="3.28984514743918"><ele>521.0</ele><time>2026-04-02T14:05:37Z</time></trkpt><trkpt lat="44.036586829113084" lon="3.2899621363498004"><ele>519.3333333333333</ele><time>2026-04-02T14:05:38Z</time></trkpt><trkpt lat="44.03672148137756" lon="3.29011261869742"><ele>517.6666666666666</ele><time>2026-04-02T14:05:39Z</time></trkpt><trkpt lat="44.03685203684594" lon="3.290291484982238"><ele>516.0</ele><time>2026-04-02T14:05:40Z</time></trkpt><trkpt lat="44.03696634356913" lon="3.290484798354818"><ele>512.3333333333334</ele><time>2026-04-02T14:05:41Z</time></trkpt><trkpt lat="44.037064230605" lon="3.290681390889632"><ele>508.6666666666667</ele><time>2026-04-02T14:05:42Z</time></trkpt><trkpt lat="44.03714882420244" lon="3.2908602104300937"><ele>505.0</ele><time>2026-04-02T14:05:43Z</time></trkpt><trkpt lat="44.037241055176395" lon="3.290995315215111"><ele>505.0</ele><time>2026-04-02T14:05:44Z</time></trkpt><trkpt lat="44.03735213332963" lon="3.29108052935812"><ele>505.0</ele><time>2026-04-02T14:05:45Z</time></trkpt><trkpt lat="44.03746620726631" lon="3.291099269880922"><ele>505.0</ele><time>2026-04-02T14:05:46Z</time></trkpt><trkpt lat="44.03756834711043" lon="3.2910540386365272"><ele>505.0</ele><time>2026-04-02T14:05:47Z</time></trkpt><trkpt lat="44.03765714880202" lon="3.290973199921337"><ele>508.0</ele><time>2026-04-02T14:05:48Z</time></trkpt><trkpt lat="44.037737469511626" lon="3.290859950111054"><ele>511.0</ele><time>2026-04-02T14:05:49Z</time></trkpt><trkpt lat="44.037807827556044" lon="3.2907010418968765"><ele>514.0</ele><time>2026-04-02T14:05:50Z</time></trkpt><trkpt lat="44.037853116405095" lon="3.2905137294033238"><ele>517.0</ele><time>2026-04-02T14:05:51Z</time></trkpt><trkpt lat="44.0378983875902" lon="3.2903110685855297"><ele>519.25</ele><time>2026-04-02T14:05:52Z</time></trkpt><trkpt lat="44.03797303113178" lon="3.290121235423403"><ele>521.5</ele><time>2026-04-02T14:05:53Z</time></trkpt><trkpt lat="44.03804740350262" lon="3.289958847769428"><ele>523.75</ele><time>2026-04-02T14:05:54Z</time></trkpt><trkpt lat="44.038141474865704" lon="3.289845720529825"><ele>526.0</ele><time>2026-04-02T14:05:55Z</time></trkpt><trkpt lat="44.03824417859947" lon="3.289767608988168"><ele>524.25</ele><time>2026-04-02T14:05:56Z</time></trkpt><trkpt lat="44.03835959477158" lon="3.2897699312529136"><ele>522.5</ele><time>2026-04-02T14:05:57Z</time></trkpt><trkpt lat="44.03847888026382" lon="3.289815649038984"><ele>520.75</ele><time>2026-04-02T14:05:58Z</time></trkpt><trkpt lat="44.038584132045" lon="3.2899326891103837"><ele>519.0</ele><time>2026-04-02T14:05:59Z</time></trkpt><trkpt lat="44.03869044543102" lon="3.290090088758352"><ele>519.0</ele><time>2026-04-02T14:06:00Z</time></trkpt><trkpt lat="44.03878589715629" lon="3.2902806226124977"><ele>519.0</ele><time>2026-04-02T14:06:01Z</time></trkpt><trkpt lat="44.03884725907481" lon="3.290517020959002"><ele>519.0</ele><time>2026-04-02T14:06:02Z</time></trkpt><trkpt lat="44.038859373925405" lon="3.290770576267148"><ele>516.0</ele><time>2026-04-02T14:06:03Z</time></trkpt><trkpt lat="44.03886599972925" lon="3.291027580192799"><ele>513.0</ele><time>2026-04-02T14:06:04Z</time></trkpt><trkpt lat="44.03887776713832" lon="3.2912495255436"><ele>510.0</ele><time>2026-04-02T14:06:05Z</time></trkpt><trkpt lat="44.038891173795605" lon="3.2914687612508478"><ele>506.66666666666663</ele><time>2026-04-02T14:06:06Z</time></trkpt><trkpt lat="44.03894454361796" lon="3.2916908580719824"><ele>503.3333333333333</ele><time>2026-04-02T14:06:07Z</time></trkpt><trkpt lat="44.039014557659165" lon="3.2918902337822913"><ele>500.0</ele><time>2026-04-02T14:06:08Z</time></trkpt><trkpt lat="44.03911839414584" lon="3.2920422601148576"><ele>501.66666666666663</ele><time>2026-04-02T14:06:09Z</time></trkpt><trkpt lat="44.03924711830814" lon="3.292172412514849"><ele>503.33333333333337</ele><time>2026-04-02T14:06:10Z</time></trkpt><trkpt lat="44.03940200635664" lon="3.292287760373246"><ele>505.0</ele><time>2026-04-02T14:06:11Z</time></trkpt><trkpt lat="44.039563999942125" lon="3.2924002792401414"><ele>505.0</ele><time>2026-04-02T14:06:12Z</time></trkpt><trkpt lat="44.039731514330704" lon="3.2925038788919068"><ele>505.0</ele><time>2026-04-02T14:06:13Z</time></trkpt><trkpt lat="44.03989885080172" lon="3.292616875495686"><ele>505.0</ele><time>2026-04-02T14:06:14Z</time></trkpt><trkpt lat="44.04007034121798" lon="3.2927305808244216"><ele>503.6666666666667</ele><time>2026-04-02T14:06:15Z</time></trkpt><trkpt lat="44.040241294468316" lon="3.2928507133420943"><ele>502.33333333333337</ele><time>2026-04-02T14:06:16Z</time></trkpt><trkpt lat="44.04041322082798" lon="3.292975936708069"><ele>501.0</ele><time>2026-04-02T14:06:17Z</time></trkpt><trkpt lat="44.04059021998424" lon="3.2931052787896093"><ele>501.0</ele><time>2026-04-02T14:06:18Z</time></trkpt><trkpt lat="44.04077094561375" lon="3.2932338202273823"><ele>501.0</ele><time>2026-04-02T14:06:19Z</time></trkpt><trkpt lat="44.040956625480376" lon="3.293367551863239"><ele>501.0</ele><time>2026-04-02T14:06:20Z</time></trkpt><trkpt lat="44.041132115811465" lon="3.2935040885138482"><ele>499.66666666666663</ele><time>2026-04-02T14:06:21Z</time></trkpt><trkpt lat="44.041293997927085" lon="3.293669664655475"><ele>498.3333333333333</ele><time>2026-04-02T14:06:22Z</time></trkpt><trkpt lat="44.041443193761594" lon="3.2938395205485116"><ele>497.0</ele><time>2026-04-02T14:06:23Z</time></trkpt><trkpt lat="44.041601704881536" lon="3.294000279651372"><ele>500.3333333333333</ele><time>2026-04-02T14:06:24Z</time></trkpt><trkpt lat="44.041741848365156" lon="3.2941805240744886"><ele>503.66666666666663</ele><time>2026-04-02T14:06:25Z</time></trkpt><trkpt lat="44.04189229142477" lon="3.294332683981105"><ele>507.0</ele><time>2026-04-02T14:06:26Z</time></trkpt><trkpt lat="44.04206217253177" lon="3.29444988156473"><ele>507.0</ele><time>2026-04-02T14:06:27Z</time></trkpt><trkpt lat="44.04224643617364" lon="3.2945409425669148"><ele>507.0</ele><time>2026-04-02T14:06:28Z</time></trkpt><trkpt lat="44.04242351440639" lon="3.294615339941745"><ele>507.0</ele><time>2026-04-02T14:06:29Z</time></trkpt><trkpt lat="44.042606848405555" lon="3.294694156241765"><ele>504.0</ele><time>2026-04-02T14:06:30Z</time></trkpt><trkpt lat="44.042789350377994" lon="3.2947460801706896"><ele>501.0</ele><time>2026-04-02T14:06:31Z</time></trkpt><trkpt lat="44.04297746516112" lon="3.294780819807343"><ele>498.0</ele><time>2026-04-02T14:06:32Z</time></trkpt><trkpt lat="44.04317017416903" lon="3.294804192336856"><ele>499.33333333333337</ele><time>2026-04-02T14:06:33Z</time></trkpt><trkpt lat="44.043348111868134" lon="3.2948802435848337"><ele>500.6666666666667</ele><time>2026-04-02T14:06:34Z</time></trkpt><trkpt lat="44.0435304790349" lon="3.294963651272717"><ele>502.0</ele><time>2026-04-02T14:06:35Z</time></trkpt><trkpt lat="44.04370762939816" lon="3.2950826635965393"><ele>502.0</ele><time>2026-04-02T14:06:36Z</time></trkpt><trkpt lat="44.04389444035941" lon="3.295190955294837"><ele>502.0</ele><time>2026-04-02T14:06:37Z</time></trkpt><trkpt lat="44.04408628242687" lon="3.295298005207176"><ele>502.0</ele><time>2026-04-02T14:06:38Z</time></trkpt><trkpt lat="44.04428843120128" lon="3.295391098185197"><ele>507.0</ele><time>2026-04-02T14:06:39Z</time></trkpt><trkpt lat="44.04447940618917" lon="3.295446681154758"><ele>512.0</ele><time>2026-04-02T14:06:40Z</time></trkpt><trkpt lat="44.044680536673575" lon="3.29551838917109"><ele>517.0</ele><time>2026-04-02T14:06:41Z</time></trkpt><trkpt lat="44.04487384806427" lon="3.2955949542317535"><ele>510.33333333333337</ele><time>2026-04-02T14:06:42Z</time></trkpt><trkpt lat="44.04507196032793" lon="3.2956735097235192"><ele>503.66666666666663</ele><time>2026-04-02T14:06:43Z</time></trkpt><trkpt lat="44.045264087939714" lon="3.295755062830504"><ele>497.0</ele><time>2026-04-02T14:06:44Z</time></trkpt><trkpt lat="44.04545780548426" lon="3.295836071441712"><ele>497.0</ele><time>2026-04-02T14:06:45Z</time></trkpt><trkpt lat="44.04565400590935" lon="3.2959130093124593"><ele>497.0</ele><time>2026-04-02T14:06:46Z</time></trkpt><trkpt lat="44.04584539734543" lon="3.2959962775899654"><ele>497.0</ele><time>2026-04-02T14:06:47Z</time></trkpt><trkpt lat="44.04603068107047" lon="3.2960892928968604"><ele>500.3333333333333</ele><time>2026-04-02T14:06:48Z</time></trkpt><trkpt lat="44.046203147095575" lon="3.296198988915672"><ele>503.66666666666663</ele><time>2026-04-02T14:06:49Z</time></trkpt><trkpt lat="44.046360654825385" lon="3.2963183928284567"><ele>507.0</ele><time>2026-04-02T14:06:50Z</time></trkpt><trkpt lat="44.04650841218762" lon="3.296419489021867"><ele>502.5</ele><time>2026-04-02T14:06:51Z</time></trkpt><trkpt lat="44.04665333988791" lon="3.2964821500962915"><ele>498.0</ele><time>2026-04-02T14:06:52Z</time></trkpt><trkpt lat="44.04680211874208" lon="3.296478840018223"><ele>493.5</ele><time>2026-04-02T14:06:53Z</time></trkpt><trkpt lat="44.04694153188504" lon="3.296411027305783"><ele>489.0</ele><time>2026-04-02T14:06:54Z</time></trkpt><trkpt lat="44.047065549265454" lon="3.296326942967532"><ele>489.0</ele><time>2026-04-02T14:06:55Z</time></trkpt><trkpt lat="44.04718338830753" lon="3.296289819051173"><ele>489.0</ele><time>2026-04-02T14:06:56Z</time></trkpt><trkpt lat="44.047285215425596" lon="3.296363592858202"><ele>489.0</ele><time>2026-04-02T14:06:57Z</time></trkpt><trkpt lat="44.047353882122515" lon="3.2964833988434012"><ele>489.0</ele><time>2026-04-02T14:06:58Z</time></trkpt><trkpt lat="44.047380013455324" lon="3.2966412760377772"><ele>489.0</ele><time>2026-04-02T14:06:59Z</time></trkpt><trkpt lat="44.04736173254664" lon="3.2968155296280464"><ele>489.0</ele><time>2026-04-02T14:07:00Z</time></trkpt><trkpt lat="44.04732742094351" lon="3.2970075053204573"><ele>489.0</ele><time>2026-04-02T14:07:01Z</time></trkpt><trkpt lat="44.047302490553314" lon="3.2972093480159828"><ele>489.0</ele><time>2026-04-02T14:07:02Z</time></trkpt><trkpt lat="44.047277435751475" lon="3.297417043155679"><ele>492.66666666666663</ele><time>2026-04-02T14:07:03Z</time></trkpt><trkpt lat="44.047297406484844" lon="3.2976428465374843"><ele>496.3333333333333</ele><time>2026-04-02T14:07:04Z</time></trkpt><trkpt lat="44.04737048716925" lon="3.2978681947722475"><ele>500.0</ele><time>2026-04-02T14:07:05Z</time></trkpt><trkpt lat="44.047466296424105" lon="3.298083563804808"><ele>494.3333333333333</ele><time>2026-04-02T14:07:06Z</time></trkpt><trkpt lat="44.04757862489106" lon="3.2982901198880685"><ele>488.66666666666663</ele><time>2026-04-02T14:07:07Z</time></trkpt><trkpt lat="44.04769182048941" lon="3.298490632116553"><ele>483.0</ele><time>2026-04-02T14:07:08Z</time></trkpt><trkpt lat="44.047833406389145" lon="3.2986475097862935"><ele>483.0</ele><time>2026-04-02T14:07:09Z</time></trkpt><trkpt lat="44.04799145061596" lon="3.2987658686497334"><ele>483.0</ele><time>2026-04-02T14:07:10Z</time></trkpt><trkpt lat="44.04815409291248" lon="3.2988606093366317"><ele>483.0</ele><time>2026-04-02T14:07:11Z</time></trkpt><trkpt lat="44.048298722479316" lon="3.298974410642221"><ele>484.66666666666663</ele><time>2026-04-02T14:07:12Z</time></trkpt><trkpt lat="44.04843403564873" lon="3.2991234278195827"><ele>486.3333333333333</ele><time>2026-04-02T14:07:13Z</time></trkpt><trkpt lat="44.04854899035282" lon="3.2993058258380574"><ele>488.0</ele><time>2026-04-02T14:07:14Z</time></trkpt><trkpt lat="44.04867581369841" lon="3.299491776797386"><ele>488.0</ele><time>2026-04-02T14:07:15Z</time></trkpt><trkpt lat="44.048816218456466" lon="3.2996499699154502"><ele>488.0</ele><time>2026-04-02T14:07:16Z</time></trkpt><trkpt lat="44.04897987089472" lon="3.2998122782602466"><ele>488.0</ele><time>2026-04-02T14:07:17Z</time></trkpt><trkpt lat="44.04913596628115" lon="3.2999376342811315"><ele>487.3333333333333</ele><time>2026-04-02T14:07:18Z</time></trkpt><trkpt lat="44.04930799554976" lon="3.3000605122238182"><ele>486.66666666666663</ele><time>2026-04-02T14:07:19Z</time></trkpt><trkpt lat="44.04947986020806" lon="3.3001751912823005"><ele>486.0</ele><time>2026-04-02T14:07:20Z</time></trkpt><trkpt lat="44.0496484089372" lon="3.3002866284801895"><ele>486.0</ele><time>2026-04-02T14:07:21Z</time></trkpt><trkpt lat="44.0498184817097" lon="3.3003832527552217"><ele>486.0</ele><time>2026-04-02T14:07:22Z</time></trkpt><trkpt lat="44.049991065220645" lon="3.30046567464336"><ele>486.0</ele><time>2026-04-02T14:07:23Z</time></trkpt><trkpt lat="44.05016506953195" lon="3.300534743930453"><ele>484.33333333333337</ele><time>2026-04-02T14:07:24Z</time></trkpt><trkpt lat="44.05034288827498" lon="3.3005856502460156"><ele>482.6666666666667</ele><time>2026-04-02T14:07:25Z</time></trkpt><trkpt lat="44.050525694478466" lon="3.300635580557594"><ele>481.0</ele><time>2026-04-02T14:07:26Z</time></trkpt><trkpt lat="44.05070413848552" lon="3.300689337307826"><ele>481.6666666666667</ele><time>2026-04-02T14:07:27Z</time></trkpt><trkpt lat="44.05088551309968" lon="3.3007475064773835"><ele>482.33333333333337</ele><time>2026-04-02T14:07:28Z</time></trkpt><trkpt lat="44.05106872822383" lon="3.30081622029914"><ele>483.0</ele><time>2026-04-02T14:07:29Z</time></trkpt><trkpt lat="44.05125038525077" lon="3.3008905781620625"><ele>483.0</ele><time>2026-04-02T14:07:30Z</time></trkpt><trkpt lat="44.05142943557194" lon="3.3009586419000256"><ele>483.0</ele><time>2026-04-02T14:07:31Z</time></trkpt><trkpt lat="44.05160976780513" lon="3.3009987563295513"><ele>483.0</ele><time>2026-04-02T14:07:32Z</time></trkpt><trkpt lat="44.0517903210835" lon="3.3010156554990964"><ele>485.66666666666663</ele><time>2026-04-02T14:07:33Z</time></trkpt><trkpt lat="44.05197045567212" lon="3.301024523781405"><ele>488.3333333333333</ele><time>2026-04-02T14:07:34Z</time></trkpt><trkpt lat="44.052152048248324" lon="3.3010314680191812"><ele>491.0</ele><time>2026-04-02T14:07:35Z</time></trkpt><trkpt lat="44.05232381866065" lon="3.3010361380630853"><ele>491.66666666666663</ele><time>2026-04-02T14:07:36Z</time></trkpt><trkpt lat="44.05250118370619" lon="3.301033412454938"><ele>492.33333333333337</ele><time>2026-04-02T14:07:37Z</time></trkpt><trkpt lat="44.05267466952983" lon="3.3010389312309907"><ele>493.0</ele><time>2026-04-02T14:07:38Z</time></trkpt><trkpt lat="44.052837654549606" lon="3.301073757443645"><ele>493.0</ele><time>2026-04-02T14:07:39Z</time></trkpt><trkpt lat="44.05296324223448" lon="3.3011039800600206"><ele>492.99999999999994</ele><time>2026-04-02T14:07:40Z</time></trkpt><trkpt lat="44.05306225175464" lon="3.301128358633501"><ele>492.99999999999994</ele><time>2026-04-02T14:07:41Z</time></trkpt><trkpt lat="44.053163065994205" lon="3.3011890670966713"><ele>493.0</ele><time>2026-04-02T14:07:42Z</time></trkpt><trkpt lat="44.05323169263135" lon="3.301209428388405"><ele>493.0</ele><time>2026-04-02T14:07:43Z</time></trkpt><trkpt lat="44.053300107894984" lon="3.3012560579255226"><ele>496.59999999999997</ele><time>2026-04-02T14:07:44Z</time></trkpt><trkpt lat="44.05337714268707" lon="3.3013009837095737"><ele>500.19999999999993</ele><time>2026-04-02T14:07:45Z</time></trkpt><trkpt lat="44.05347271726372" lon="3.30135746488754"><ele>503.8</ele><time>2026-04-02T14:07:46Z</time></trkpt><trkpt lat="44.0535705245781" lon="3.3014158383361654"><ele>507.4</ele><time>2026-04-02T14:07:47Z</time></trkpt><trkpt lat="44.053673306307644" lon="3.3014876817413747"><ele>511.0</ele><time>2026-04-02T14:07:48Z</time></trkpt><trkpt lat="44.05374898570255" lon="3.3016059134218456"><ele>505.0</ele><time>2026-04-02T14:07:49Z</time></trkpt><trkpt lat="44.053841118134244" lon="3.30170754300757"><ele>499.0</ele><time>2026-04-02T14:07:50Z</time></trkpt><trkpt lat="44.05391994587372" lon="3.3018092111725257"><ele>493.0</ele><time>2026-04-02T14:07:51Z</time></trkpt><trkpt lat="44.05400070915583" lon="3.301907666070989"><ele>487.0</ele><time>2026-04-02T14:07:52Z</time></trkpt><trkpt lat="44.05408354247694" lon="3.3020051831374686"><ele>481.0</ele><time>2026-04-02T14:07:53Z</time></trkpt><trkpt lat="44.05416783202477" lon="3.302106834868415"><ele>481.0</ele><time>2026-04-02T14:07:54Z</time></trkpt><trkpt lat="44.054252428348036" lon="3.3022066577508675"><ele>481.0</ele><time>2026-04-02T14:07:55Z</time></trkpt><trkpt lat="44.0543472188279" lon="3.3022870885549422"><ele>481.0</ele><time>2026-04-02T14:07:56Z</time></trkpt><trkpt lat="44.054451801347504" lon="3.302353750835645"><ele>481.0</ele><time>2026-04-02T14:07:57Z</time></trkpt><trkpt lat="44.05455462951611" lon="3.3024100595231767"><ele>481.0</ele><time>2026-04-02T14:07:58Z</time></trkpt><trkpt lat="44.05466083051153" lon="3.3024491050268185"><ele>478.4</ele><time>2026-04-02T14:07:59Z</time></trkpt><trkpt lat="44.05474500174229" lon="3.302468266700722"><ele>475.8</ele><time>2026-04-02T14:08:00Z</time></trkpt><trkpt lat="44.054804503588386" lon="3.302509043462191"><ele>473.19999999999993</ele><time>2026-04-02T14:08:01Z</time></trkpt><trkpt lat="44.05474352356085" lon="3.3027078648674038"><ele>470.59999999999997</ele><time>2026-04-02T14:08:04Z</time></trkpt><trkpt lat="44.054695614053806" lon="3.3027977469486363"><ele>468.0</ele><time>2026-04-02T14:08:05Z</time></trkpt><trkpt lat="44.05463798904109" lon="3.3029071241391206"><ele>468.0</ele><time>2026-04-02T14:08:06Z</time></trkpt><trkpt lat="44.054536837976606" lon="3.3029719320526634"><ele>468.0</ele><time>2026-04-02T14:08:07Z</time></trkpt><trkpt lat="44.0544361179877" lon="3.303062618206249"><ele>468.0</ele><time>2026-04-02T14:08:08Z</time></trkpt><trkpt lat="44.05431925253159" lon="3.303132622748025"><ele>468.0</ele><time>2026-04-02T14:08:09Z</time></trkpt><trkpt lat="44.054191789026895" lon="3.303220094311152"><ele>465.0</ele><time>2026-04-02T14:08:10Z</time></trkpt><trkpt lat="44.054069080328695" lon="3.303303796121505"><ele>462.0</ele><time>2026-04-02T14:08:11Z</time></trkpt><trkpt lat="44.05395222488693" lon="3.303387253450683"><ele>459.0</ele><time>2026-04-02T14:08:12Z</time></trkpt><trkpt lat="44.053847153490615" lon="3.3034911552097923"><ele>456.0</ele><time>2026-04-02T14:08:13Z</time></trkpt><trkpt lat="44.05379372350488" lon="3.3036406253448"><ele>456.0</ele><time>2026-04-02T14:08:14Z</time></trkpt><trkpt lat="44.053750242101195" lon="3.3037997134678476"><ele>456.0</ele><time>2026-04-02T14:08:15Z</time></trkpt><trkpt lat="44.053714397774556" lon="3.3039551208513194"><ele>456.0</ele><time>2026-04-02T14:08:16Z</time></trkpt><trkpt lat="44.053681902946465" lon="3.304096023187816"><ele>456.0</ele><time>2026-04-02T14:08:17Z</time></trkpt><trkpt lat="44.05365128519116" lon="3.304222483835903"><ele>456.0</ele><time>2026-04-02T14:08:18Z</time></trkpt><trkpt lat="44.05361934704075" lon="3.304345782104355"><ele>456.6666666666667</ele><time>2026-04-02T14:08:19Z</time></trkpt><trkpt lat="44.05359242038058" lon="3.3044579493309216"><ele>457.33333333333337</ele><time>2026-04-02T14:08:20Z</time></trkpt><trkpt lat="44.053569104414144" lon="3.304562472797674"><ele>458.0</ele><time>2026-04-02T14:08:21Z</time></trkpt><trkpt lat="44.053551182172484" lon="3.3046586104756024"><ele>458.6666666666667</ele><time>2026-04-02T14:08:22Z</time></trkpt><trkpt lat="44.05357230600879" lon="3.304741747851253"><ele>459.33333333333337</ele><time>2026-04-02T14:08:23Z</time></trkpt><trkpt lat="44.05361627897144" lon="3.3048156298974143"><ele>460.0</ele><time>2026-04-02T14:08:24Z</time></trkpt><trkpt lat="44.05369596384608" lon="3.3048608360087153"><ele>464.0</ele><time>2026-04-02T14:08:25Z</time></trkpt><trkpt lat="44.0537905407586" lon="3.304874290447702"><ele>468.0</ele><time>2026-04-02T14:08:26Z</time></trkpt><trkpt lat="44.05388963957277" lon="3.3048669890769227"><ele>472.0</ele><time>2026-04-02T14:08:27Z</time></trkpt><trkpt lat="44.05400514382719" lon="3.304860547478649"><ele>476.0</ele><time>2026-04-02T14:08:28Z</time></trkpt><trkpt lat="44.054135295643555" lon="3.3048526297345626"><ele>480.0</ele><time>2026-04-02T14:08:29Z</time></trkpt><trkpt lat="44.05425417482148" lon="3.3048356561016083"><ele>480.0</ele><time>2026-04-02T14:08:30Z</time></trkpt><trkpt lat="44.0543697905438" lon="3.304826673007875"><ele>480.0</ele><time>2026-04-02T14:08:31Z</time></trkpt><trkpt lat="44.05448923522208" lon="3.304829936249797"><ele>480.0</ele><time>2026-04-02T14:08:32Z</time></trkpt><trkpt lat="44.054614461326416" lon="3.3048377597389123"><ele>480.0</ele><time>2026-04-02T14:08:33Z</time></trkpt><trkpt lat="44.05474172824064" lon="3.304856636378419"><ele>480.0</ele><time>2026-04-02T14:08:34Z</time></trkpt><trkpt lat="44.05486875650496" lon="3.304878876612768"><ele>480.0</ele><time>2026-04-02T14:08:35Z</time></trkpt><trkpt lat="44.05499657597059" lon="3.304883825979988"><ele>480.0</ele><time>2026-04-02T14:08:36Z</time></trkpt><trkpt lat="44.05512653455157" lon="3.304867517980768"><ele>480.0</ele><time>2026-04-02T14:08:37Z</time></trkpt><trkpt lat="44.055260103278016" lon="3.3048425872508562"><ele>481.5</ele><time>2026-04-02T14:08:38Z</time></trkpt><trkpt lat="44.05539496154962" lon="3.304807495761185"><ele>483.0</ele><time>2026-04-02T14:08:39Z</time></trkpt><trkpt lat="44.05552923612531" lon="3.3047567569517646"><ele>484.5</ele><time>2026-04-02T14:08:40Z</time></trkpt><trkpt lat="44.055663546365835" lon="3.3047053687078027"><ele>486.0</ele><time>2026-04-02T14:08:41Z</time></trkpt><trkpt lat="44.055799126625196" lon="3.3046565212812213"><ele>480.5</ele><time>2026-04-02T14:08:42Z</time></trkpt><trkpt lat="44.05593001171758" lon="3.304595262122917"><ele>475.0</ele><time>2026-04-02T14:08:43Z</time></trkpt><trkpt lat="44.05604455274" lon="3.3045323838121354"><ele>469.5</ele><time>2026-04-02T14:08:44Z</time></trkpt><trkpt lat="44.05612859348409" lon="3.3044871700892484"><ele>464.0</ele><time>2026-04-02T14:08:45Z</time></trkpt><trkpt lat="44.05623008357277" lon="3.3045448318598147"><ele>464.0</ele><time>2026-04-02T14:08:47Z</time></trkpt><trkpt lat="44.05623795218037" lon="3.304730360839154"><ele>464.0</ele><time>2026-04-02T14:08:49Z</time></trkpt><trkpt lat="44.05621056579615" lon="3.3048408877879236"><ele>464.0</ele><time>2026-04-02T14:08:50Z</time></trkpt><trkpt lat="44.05616506949277" lon="3.304985874305804"><ele>464.0</ele><time>2026-04-02T14:08:51Z</time></trkpt><trkpt lat="44.05611378941075" lon="3.3051421563268493"><ele>470.5</ele><time>2026-04-02T14:08:52Z</time></trkpt><trkpt lat="44.05605859397271" lon="3.305305127818977"><ele>477.0</ele><time>2026-04-02T14:08:53Z</time></trkpt><trkpt lat="44.056001419085064" lon="3.3054809681988835"><ele>483.5</ele><time>2026-04-02T14:08:54Z</time></trkpt><trkpt lat="44.05593759320218" lon="3.305658445644259"><ele>490.0</ele><time>2026-04-02T14:08:55Z</time></trkpt><trkpt lat="44.05585689104533" lon="3.30584584312056"><ele>500.6666666666667</ele><time>2026-04-02T14:08:56Z</time></trkpt><trkpt lat="44.05576790726142" lon="3.3060323458062526"><ele>511.33333333333337</ele><time>2026-04-02T14:08:57Z</time></trkpt><trkpt lat="44.05568212525904" lon="3.3061980301258096"><ele>522.0</ele><time>2026-04-02T14:08:58Z</time></trkpt><trkpt lat="44.0555992547444" lon="3.3063658957341455"><ele>522.5</ele><time>2026-04-02T14:08:59Z</time></trkpt><trkpt lat="44.05552605757739" lon="3.3065457001776823"><ele>523.0</ele><time>2026-04-02T14:09:00Z</time></trkpt><trkpt lat="44.05545687357767" lon="3.3067317889140764"><ele>523.5</ele><time>2026-04-02T14:09:01Z</time></trkpt><trkpt lat="44.055379498217455" lon="3.306904999463611"><ele>524.0</ele><time>2026-04-02T14:09:02Z</time></trkpt><trkpt lat="44.05528352460911" lon="3.3070587775776246"><ele>524.0</ele><time>2026-04-02T14:09:03Z</time></trkpt><trkpt lat="44.05517614476164" lon="3.3071994667025875"><ele>524.0</ele><time>2026-04-02T14:09:04Z</time></trkpt><trkpt lat="44.05506823138215" lon="3.3073373529351158"><ele>524.0</ele><time>2026-04-02T14:09:05Z</time></trkpt><trkpt lat="44.05496345447916" lon="3.307481605335218"><ele>524.0</ele><time>2026-04-02T14:09:06Z</time></trkpt><trkpt lat="44.05486136453982" lon="3.3076277754187116"><ele>527.0</ele><time>2026-04-02T14:09:07Z</time></trkpt><trkpt lat="44.054770255552405" lon="3.3077757901393294"><ele>530.0</ele><time>2026-04-02T14:09:08Z</time></trkpt><trkpt lat="44.05468245492079" lon="3.3079232330424633"><ele>533.0</ele><time>2026-04-02T14:09:09Z</time></trkpt><trkpt lat="44.05458821493439" lon="3.3080538286676586"><ele>536.0</ele><time>2026-04-02T14:09:10Z</time></trkpt><trkpt lat="44.05448782244525" lon="3.308154712034795"><ele>536.0</ele><time>2026-04-02T14:09:11Z</time></trkpt><trkpt lat="44.054404260441125" lon="3.3082501987136057"><ele>536.0</ele><time>2026-04-02T14:09:12Z</time></trkpt><trkpt lat="44.054363071404666" lon="3.3083700453324116"><ele>536.0</ele><time>2026-04-02T14:09:13Z</time></trkpt><trkpt lat="44.05438407509934" lon="3.308486809310239"><ele>536.0</ele><time>2026-04-02T14:09:14Z</time></trkpt><trkpt lat="44.0544566854301" lon="3.308567017071963"><ele>536.0</ele><time>2026-04-02T14:09:15Z</time></trkpt><trkpt lat="44.05455395540826" lon="3.3086193494573095"><ele>536.0</ele><time>2026-04-02T14:09:16Z</time></trkpt><trkpt lat="44.05463782918155" lon="3.3086548791144406"><ele>536.0</ele><time>2026-04-02T14:09:17Z</time></trkpt><trkpt lat="44.05473591827299" lon="3.3086581953790137"><ele>536.0</ele><time>2026-04-02T14:09:18Z</time></trkpt><trkpt lat="44.05483783596943" lon="3.3085425823223633"><ele>536.0</ele><time>2026-04-02T14:09:19Z</time></trkpt><trkpt lat="44.05494054260072" lon="3.308409951411582"><ele>531.25</ele><time>2026-04-02T14:09:20Z</time></trkpt><trkpt lat="44.05504705097333" lon="3.308285710764289"><ele>526.5</ele><time>2026-04-02T14:09:21Z</time></trkpt><trkpt lat="44.05515066273745" lon="3.3081913083503713"><ele>521.75</ele><time>2026-04-02T14:09:22Z</time></trkpt><trkpt lat="44.05524968109609" lon="3.308120652872252"><ele>517.0</ele><time>2026-04-02T14:09:23Z</time></trkpt><trkpt lat="44.05535513223924" lon="3.3080863333302277"><ele>515.5</ele><time>2026-04-02T14:09:24Z</time></trkpt><trkpt lat="44.055458865528294" lon="3.3080445594486427"><ele>514.0</ele><time>2026-04-02T14:09:25Z</time></trkpt><trkpt lat="44.055547573166606" lon="3.3079844553065008"><ele>512.5</ele><time>2026-04-02T14:09:26Z</time></trkpt><trkpt lat="44.05560816572628" lon="3.3079486161146803"><ele>511.0</ele><time>2026-04-02T14:09:27Z</time></trkpt><trkpt lat="44.05567182700113" lon="3.307922704985514"><ele>509.50000000000006</ele><time>2026-04-02T14:09:30Z</time></trkpt><trkpt lat="44.05558156377926" lon="3.307846198620884"><ele>508.0</ele><time>2026-04-02T14:10:44Z</time></trkpt><trkpt lat="44.05568715548349" lon="3.307836633844362"><ele>508.0</ele><time>2026-04-02T14:11:40Z</time></trkpt><trkpt lat="44.05575991538165" lon="3.3077777443325806"><ele>507.99999999999994</ele><time>2026-04-02T14:11:41Z</time></trkpt><trkpt lat="44.055836843157294" lon="3.30770352888919"><ele>507.99999999999994</ele><time>2026-04-02T14:11:42Z</time></trkpt><trkpt lat="44.0559408245548" lon="3.307647959900257"><ele>508.0</ele><time>2026-04-02T14:11:43Z</time></trkpt><trkpt lat="44.05603279788121" lon="3.307545122515344"><ele>508.0</ele><time>2026-04-02T14:11:44Z</time></trkpt><trkpt lat="44.05612886700791" lon="3.3074355051157758"><ele>508.75</ele><time>2026-04-02T14:11:45Z</time></trkpt><trkpt lat="44.056223254645715" lon="3.307327806428001"><ele>509.5</ele><time>2026-04-02T14:11:46Z</time></trkpt><trkpt lat="44.056318186219855" lon="3.307223298117247"><ele>510.25</ele><time>2026-04-02T14:11:47Z</time></trkpt><trkpt lat="44.05641513694186" lon="3.3071222004217544"><ele>511.0</ele><time>2026-04-02T14:11:48Z</time></trkpt><trkpt lat="44.05651369637198" lon="3.3070194250211142"><ele>512.2</ele><time>2026-04-02T14:11:49Z</time></trkpt><trkpt lat="44.05661046288891" lon="3.3069185194197925"><ele>513.4000000000001</ele><time>2026-04-02T14:11:50Z</time></trkpt><trkpt lat="44.05670381682137" lon="3.3068158963916705"><ele>514.6</ele><time>2026-04-02T14:11:51Z</time></trkpt><trkpt lat="44.05677903898875" lon="3.3067083892944713"><ele>515.8000000000001</ele><time>2026-04-02T14:11:52Z</time></trkpt><trkpt lat="44.05684174379585" lon="3.306612580158694"><ele>517.0</ele><time>2026-04-02T14:11:53Z</time></trkpt><trkpt lat="44.056895099757895" lon="3.306532082859263"><ele>517.0</ele><time>2026-04-02T14:11:54Z</time></trkpt><trkpt lat="44.05694430848585" lon="3.3064589580117905"><ele>517.0</ele><time>2026-04-02T14:11:55Z</time></trkpt><trkpt lat="44.05702615981287" lon="3.3063626238496786"><ele>517.0</ele><time>2026-04-02T14:11:57Z</time></trkpt><trkpt lat="44.05711196617704" lon="3.306288259723619"><ele>517.0</ele><time>2026-04-02T14:12:29Z</time></trkpt><trkpt lat="44.057174196602176" lon="3.3062493291721315"><ele>517.0</ele><time>2026-04-02T14:12:30Z</time></trkpt><trkpt lat="44.057240437386696" lon="3.306200006184568"><ele>517.0</ele><time>2026-04-02T14:12:31Z</time></trkpt><trkpt lat="44.05732079697758" lon="3.306193468484248"><ele>517.0</ele><time>2026-04-02T14:12:32Z</time></trkpt><trkpt lat="44.057394556566464" lon="3.3062133258989124"><ele>517.0</ele><time>2026-04-02T14:12:33Z</time></trkpt><trkpt lat="44.05743993041763" lon="3.3062776899252353"><ele>517.0</ele><time>2026-04-02T14:12:34Z</time></trkpt><trkpt lat="44.0574602648512" lon="3.306376994786237"><ele>517.0</ele><time>2026-04-02T14:12:35Z</time></trkpt><trkpt lat="44.0574558250937" lon="3.30648201596411"><ele>517.0</ele><time>2026-04-02T14:12:36Z</time></trkpt><trkpt lat="44.057446197604364" lon="3.306606279010233"><ele>517.0</ele><time>2026-04-02T14:12:37Z</time></trkpt><trkpt lat="44.05743630359239" lon="3.3067385975368877"><ele>517.0</ele><time>2026-04-02T14:12:38Z</time></trkpt><trkpt lat="44.0574328882653" lon="3.30688318604691"><ele>517.0</ele><time>2026-04-02T14:12:39Z</time></trkpt><trkpt lat="44.05740491568295" lon="3.307030060651731"><ele>517.0</ele><time>2026-04-02T14:12:40Z</time></trkpt><trkpt lat="44.057362432263574" lon="3.3071771231508373"><ele>517.0</ele><time>2026-04-02T14:12:41Z</time></trkpt><trkpt lat="44.057309863642125" lon="3.3073206850811347"><ele>517.0</ele><time>2026-04-02T14:12:42Z</time></trkpt><trkpt lat="44.057255371976495" lon="3.307477309380396"><ele>522.0</ele><time>2026-04-02T14:12:43Z</time></trkpt><trkpt lat="44.057205590343756" lon="3.3076191273139393"><ele>527.0</ele><time>2026-04-02T14:12:44Z</time></trkpt><trkpt lat="44.05717437829781" lon="3.307750287348509"><ele>532.0</ele><time>2026-04-02T14:12:45Z</time></trkpt><trkpt lat="44.05716220340278" lon="3.307891270195225"><ele>537.0</ele><time>2026-04-02T14:12:46Z</time></trkpt><trkpt lat="44.05716433181819" lon="3.3080505607119193"><ele>542.0</ele><time>2026-04-02T14:12:47Z</time></trkpt><trkpt lat="44.05716673912242" lon="3.3082117492144474"><ele>547.5</ele><time>2026-04-02T14:12:48Z</time></trkpt><trkpt lat="44.057182982289206" lon="3.308373484596288"><ele>553.0</ele><time>2026-04-02T14:12:49Z</time></trkpt><trkpt lat="44.05721640829466" lon="3.3085385512088488"><ele>558.5</ele><time>2026-04-02T14:12:50Z</time></trkpt><trkpt lat="44.05725006968741" lon="3.308705268550127"><ele>564.0</ele><time>2026-04-02T14:12:51Z</time></trkpt><trkpt lat="44.05728285483142" lon="3.3088608770166594"><ele>567.75</ele><time>2026-04-02T14:12:52Z</time></trkpt><trkpt lat="44.05731601330476" lon="3.3090139753092846"><ele>571.5</ele><time>2026-04-02T14:12:53Z</time></trkpt><trkpt lat="44.057347075991814" lon="3.309168735166478"><ele>575.25</ele><time>2026-04-02T14:12:54Z</time></trkpt><trkpt lat="44.05737546757638" lon="3.309323548898582"><ele>579.0</ele><time>2026-04-02T14:12:55Z</time></trkpt><trkpt lat="44.057409981511455" lon="3.309469494320437"><ele>570.75</ele><time>2026-04-02T14:12:56Z</time></trkpt><trkpt lat="44.05748960233176" lon="3.3095822056548623"><ele>562.5</ele><time>2026-04-02T14:12:57Z</time></trkpt><trkpt lat="44.05756651685479" lon="3.3096991454848186"><ele>554.25</ele><time>2026-04-02T14:12:58Z</time></trkpt><trkpt lat="44.05763746730065" lon="3.3098297575558986"><ele>546.0</ele><time>2026-04-02T14:12:59Z</time></trkpt><trkpt lat="44.05773370197093" lon="3.3099435852092998"><ele>546.0</ele><time>2026-04-02T14:13:00Z</time></trkpt><trkpt lat="44.057790821382966" lon="3.310087647782969"><ele>546.0</ele><time>2026-04-02T14:13:01Z</time></trkpt><trkpt lat="44.05783579902994" lon="3.3102335643029335"><ele>546.0</ele><time>2026-04-02T14:13:02Z</time></trkpt><trkpt lat="44.05789536900383" lon="3.3103625571018287"><ele>546.0</ele><time>2026-04-02T14:13:03Z</time></trkpt><trkpt lat="44.05798103904194" lon="3.3104434703713155"><ele>546.0</ele><time>2026-04-02T14:13:04Z</time></trkpt><trkpt lat="44.058105651594246" lon="3.3104631804790157"><ele>546.0</ele><time>2026-04-02T14:13:05Z</time></trkpt><trkpt lat="44.05823334176288" lon="3.3104328959333422"><ele>546.0</ele><time>2026-04-02T14:13:06Z</time></trkpt><trkpt lat="44.058344861085445" lon="3.31043511810259"><ele>546.0</ele><time>2026-04-02T14:13:07Z</time></trkpt><trkpt lat="44.05844173022604" lon="3.31051326263254"><ele>546.0</ele><time>2026-04-02T14:13:08Z</time></trkpt><trkpt lat="44.05854844984358" lon="3.31059017178601"><ele>547.0</ele><time>2026-04-02T14:13:09Z</time></trkpt><trkpt lat="44.058646229345314" lon="3.31070391959925"><ele>548.0</ele><time>2026-04-02T14:13:10Z</time></trkpt><trkpt lat="44.05874262801675" lon="3.310808037104297"><ele>549.0</ele><time>2026-04-02T14:13:11Z</time></trkpt><trkpt lat="44.058825880823086" lon="3.310912809002231"><ele>550.0</ele><time>2026-04-02T14:13:12Z</time></trkpt><trkpt lat="44.05886447349605" lon="3.311076131041181"><ele>550.0</ele><time>2026-04-02T14:13:13Z</time></trkpt><trkpt lat="44.058879426464856" lon="3.3112549507089186"><ele>550.0</ele><time>2026-04-02T14:13:14Z</time></trkpt><trkpt lat="44.05886797825541" lon="3.31144326314811"><ele>550.0</ele><time>2026-04-02T14:13:15Z</time></trkpt><trkpt lat="44.05886453136622" lon="3.311633366953499"><ele>550.0</ele><time>2026-04-02T14:13:16Z</time></trkpt><trkpt lat="44.05888269831432" lon="3.3118183582194987"><ele>552.0</ele><time>2026-04-02T14:13:17Z</time></trkpt><trkpt lat="44.058964720733705" lon="3.311993008527291"><ele>554.0</ele><time>2026-04-02T14:13:18Z</time></trkpt><trkpt lat="44.05903730336829" lon="3.3121621182315883"><ele>556.0</ele><time>2026-04-02T14:13:19Z</time></trkpt><trkpt lat="44.059112691527105" lon="3.3123475001071627"><ele>558.0</ele><time>2026-04-02T14:13:20Z</time></trkpt><trkpt lat="44.05921203567687" lon="3.312504117771367"><ele>558.0</ele><time>2026-04-02T14:13:21Z</time></trkpt><trkpt lat="44.0593548290969" lon="3.3126366074688693"><ele>558.0</ele><time>2026-04-02T14:13:22Z</time></trkpt><trkpt lat="44.05949612368948" lon="3.3127546280348708"><ele>558.0</ele><time>2026-04-02T14:13:23Z</time></trkpt><trkpt lat="44.05964310745094" lon="3.312862838054926"><ele>558.0</ele><time>2026-04-02T14:13:24Z</time></trkpt><trkpt lat="44.059792624983245" lon="3.312973500782917"><ele>558.0</ele><time>2026-04-02T14:13:25Z</time></trkpt><trkpt lat="44.05993920121819" lon="3.3130814162283038"><ele>558.0</ele><time>2026-04-02T14:13:26Z</time></trkpt><trkpt lat="44.06008461299847" lon="3.3131811817777477"><ele>558.3333333333334</ele><time>2026-04-02T14:13:27Z</time></trkpt><trkpt lat="44.06023919521634" lon="3.3132598610276407"><ele>558.6666666666667</ele><time>2026-04-02T14:13:28Z</time></trkpt><trkpt lat="44.06039953582035" lon="3.313289234013277"><ele>559.0</ele><time>2026-04-02T14:13:29Z</time></trkpt><trkpt lat="44.06055521915895" lon="3.3133365809020843"><ele>559.0</ele><time>2026-04-02T14:13:30Z</time></trkpt><trkpt lat="44.060701676149726" lon="3.313449673010527"><ele>559.0</ele><time>2026-04-02T14:13:31Z</time></trkpt><trkpt lat="44.060850970152025" lon="3.313596575536255"><ele>559.0</ele><time>2026-04-02T14:13:32Z</time></trkpt><trkpt lat="44.06102150230494" lon="3.3137369380717256"><ele>561.0</ele><time>2026-04-02T14:13:33Z</time></trkpt><trkpt lat="44.06118543863814" lon="3.3138389376638124"><ele>563.0</ele><time>2026-04-02T14:13:34Z</time></trkpt><trkpt lat="44.0613429168082" lon="3.3139517475089844"><ele>565.0</ele><time>2026-04-02T14:13:35Z</time></trkpt><trkpt lat="44.06150074031829" lon="3.3140605327009403"><ele>561.3333333333334</ele><time>2026-04-02T14:13:36Z</time></trkpt><trkpt lat="44.061675189751774" lon="3.314114677899123"><ele>557.6666666666666</ele><time>2026-04-02T14:13:37Z</time></trkpt><trkpt lat="44.061836879092006" lon="3.3141216123991866"><ele>554.0</ele><time>2026-04-02T14:13:38Z</time></trkpt><trkpt lat="44.06198805116546" lon="3.314122851268456"><ele>554.0</ele><time>2026-04-02T14:13:39Z</time></trkpt><trkpt lat="44.06211617442559" lon="3.314177289153215"><ele>554.0</ele><time>2026-04-02T14:13:40Z</time></trkpt><trkpt lat="44.06218403772228" lon="3.314318774842739"><ele>554.0</ele><time>2026-04-02T14:13:41Z</time></trkpt><trkpt lat="44.062232166157415" lon="3.3144717709296594"><ele>554.0</ele><time>2026-04-02T14:13:42Z</time></trkpt><trkpt lat="44.062273595775444" lon="3.3146635357064596"><ele>555.0</ele><time>2026-04-02T14:13:43Z</time></trkpt><trkpt lat="44.06232691513059" lon="3.314876412662719"><ele>556.0</ele><time>2026-04-02T14:13:44Z</time></trkpt><trkpt lat="44.06239037729376" lon="3.3150965577612146"><ele>557.0</ele><time>2026-04-02T14:13:45Z</time></trkpt><trkpt lat="44.06249852921072" lon="3.315281036350153"><ele>557.0</ele><time>2026-04-02T14:13:46Z</time></trkpt><trkpt lat="44.06264845878232" lon="3.3154193652673127"><ele>557.0</ele><time>2026-04-02T14:13:47Z</time></trkpt><trkpt lat="44.062820039501844" lon="3.3155375675635774"><ele>557.0</ele><time>2026-04-02T14:13:48Z</time></trkpt><trkpt lat="44.062986522275594" lon="3.315646436064191"><ele>557.75</ele><time>2026-04-02T14:13:49Z</time></trkpt><trkpt lat="44.06313811213041" lon="3.3157436910804043"><ele>558.5</ele><time>2026-04-02T14:13:50Z</time></trkpt><trkpt lat="44.0632539861058" lon="3.3158618170665397"><ele>559.25</ele><time>2026-04-02T14:13:51Z</time></trkpt><trkpt lat="44.06332528727904" lon="3.3159932816050697"><ele>560.0</ele><time>2026-04-02T14:13:52Z</time></trkpt><trkpt lat="44.0633515432033" lon="3.3161606321192765"><ele>560.0</ele><time>2026-04-02T14:13:53Z</time></trkpt><trkpt lat="44.06339626306235" lon="3.3163626004390525"><ele>560.0</ele><time>2026-04-02T14:13:54Z</time></trkpt><trkpt lat="44.06346279907705" lon="3.3165747871241815"><ele>560.0</ele><time>2026-04-02T14:13:55Z</time></trkpt><trkpt lat="44.063579802783444" lon="3.316746429557749"><ele>563.6666666666666</ele><time>2026-04-02T14:13:56Z</time></trkpt><trkpt lat="44.063722991104605" lon="3.3168925983349444"><ele>567.3333333333334</ele><time>2026-04-02T14:13:57Z</time></trkpt><trkpt lat="44.06387038466829" lon="3.3170483043235106"><ele>571.0</ele><time>2026-04-02T14:13:58Z</time></trkpt><trkpt lat="44.06401138378462" lon="3.3172094545589133"><ele>568.3333333333334</ele><time>2026-04-02T14:13:59Z</time></trkpt><trkpt lat="44.06414688510271" lon="3.31737431074922"><ele>565.6666666666666</ele><time>2026-04-02T14:14:00Z</time></trkpt><trkpt lat="44.06427506376723" lon="3.3175358115682556"><ele>563.0</ele><time>2026-04-02T14:14:01Z</time></trkpt><trkpt lat="44.06438528511359" lon="3.3176984757798316"><ele>563.0</ele><time>2026-04-02T14:14:02Z</time></trkpt><trkpt lat="44.06446216267702" lon="3.3178806545809096"><ele>563.0</ele><time>2026-04-02T14:14:03Z</time></trkpt><trkpt lat="44.06446147803166" lon="3.318088115842281"><ele>563.0</ele><time>2026-04-02T14:14:04Z</time></trkpt><trkpt lat="44.06445573818101" lon="3.3182914680594804"><ele>563.0</ele><time>2026-04-02T14:14:05Z</time></trkpt><trkpt lat="44.06448239821386" lon="3.3184934270412914"><ele>566.6666666666666</ele><time>2026-04-02T14:14:06Z</time></trkpt><trkpt lat="44.06453508610648" lon="3.3187103808134273"><ele>570.3333333333334</ele><time>2026-04-02T14:14:07Z</time></trkpt><trkpt lat="44.06462657887113" lon="3.31890544997982"><ele>574.0</ele><time>2026-04-02T14:14:08Z</time></trkpt><trkpt lat="44.0647380817995" lon="3.3190774160080054"><ele>574.3333333333334</ele><time>2026-04-02T14:14:09Z</time></trkpt><trkpt lat="44.064856532379395" lon="3.3192230028631275"><ele>574.6666666666666</ele><time>2026-04-02T14:14:10Z</time></trkpt><trkpt lat="44.06499585444566" lon="3.31931588622715"><ele>575.0</ele><time>2026-04-02T14:14:11Z</time></trkpt><trkpt lat="44.06514827093952" lon="3.3193421492364386"><ele>575.0</ele><time>2026-04-02T14:14:12Z</time></trkpt><trkpt lat="44.06528594780542" lon="3.3193064391280993"><ele>575.0</ele><time>2026-04-02T14:14:13Z</time></trkpt><trkpt lat="44.06541908681972" lon="3.3192120800859013"><ele>575.0</ele><time>2026-04-02T14:14:14Z</time></trkpt><trkpt lat="44.065543735638315" lon="3.3191082668007432"><ele>575.0</ele><time>2026-04-02T14:14:15Z</time></trkpt><trkpt lat="44.065656788996264" lon="3.3189883497963737"><ele>572.0</ele><time>2026-04-02T14:14:16Z</time></trkpt><trkpt lat="44.06573716825851" lon="3.3188464783879787"><ele>569.0</ele><time>2026-04-02T14:14:17Z</time></trkpt><trkpt lat="44.0657555601567" lon="3.3186679812989777"><ele>566.0</ele><time>2026-04-02T14:14:18Z</time></trkpt><trkpt lat="44.06574054253891" lon="3.318466674042117"><ele>563.0</ele><time>2026-04-02T14:14:19Z</time></trkpt><trkpt lat="44.06570709212395" lon="3.318270237297448"><ele>563.0</ele><time>2026-04-02T14:14:20Z</time></trkpt><trkpt lat="44.06566475656337" lon="3.3180702896672205"><ele>563.0</ele><time>2026-04-02T14:14:21Z</time></trkpt><trkpt lat="44.06561650156029" lon="3.3178747678344247"><ele>563.0</ele><time>2026-04-02T14:14:22Z</time></trkpt><trkpt lat="44.065567156953286" lon="3.317681351962659"><ele>563.0</ele><time>2026-04-02T14:14:23Z</time></trkpt><trkpt lat="44.06551229085504" lon="3.317513842706684"><ele>561.4</ele><time>2026-04-02T14:14:24Z</time></trkpt><trkpt lat="44.06551682874511" lon="3.3173783372883663"><ele>559.8</ele><time>2026-04-02T14:14:25Z</time></trkpt><trkpt lat="44.06552482305892" lon="3.3172643166181985"><ele>558.2</ele><time>2026-04-02T14:14:26Z</time></trkpt><trkpt lat="44.065614032968995" lon="3.3172065157767463"><ele>556.6</ele><time>2026-04-02T14:14:27Z</time></trkpt><trkpt lat="44.06569980849051" lon="3.3171321190518195"><ele>555.0</ele><time>2026-04-02T14:14:28Z</time></trkpt><trkpt lat="44.065809490268606" lon="3.317024231081128"><ele>555.0</ele><time>2026-04-02T14:14:29Z</time></trkpt><trkpt lat="44.0659179349919" lon="3.3168842690654703"><ele>555.0</ele><time>2026-04-02T14:14:30Z</time></trkpt><trkpt lat="44.06603121818793" lon="3.316751276373887"><ele>555.0</ele><time>2026-04-02T14:14:31Z</time></trkpt><trkpt lat="44.06613730304769" lon="3.31660505969157"><ele>555.0</ele><time>2026-04-02T14:14:32Z</time></trkpt><trkpt lat="44.06624051491735" lon="3.316453709993483"><ele>547.25</ele><time>2026-04-02T14:14:33Z</time></trkpt><trkpt lat="44.06633705165922" lon="3.316305105394692"><ele>539.5</ele><time>2026-04-02T14:14:34Z</time></trkpt><trkpt lat="44.06642524205686" lon="3.316171523033619"><ele>531.75</ele><time>2026-04-02T14:14:35Z</time></trkpt><trkpt lat="44.066515613290136" lon="3.3160747150433485"><ele>524.0</ele><time>2026-04-02T14:14:36Z</time></trkpt><trkpt lat="44.06660651722471" lon="3.3160427567833266"><ele>530.0</ele><time>2026-04-02T14:14:37Z</time></trkpt><trkpt lat="44.06669098003677" lon="3.316087373752764"><ele>536.0</ele><time>2026-04-02T14:14:38Z</time></trkpt><trkpt lat="44.06676395029032" lon="3.316177550913543"><ele>542.0</ele><time>2026-04-02T14:14:39Z</time></trkpt><trkpt lat="44.06686167695392" lon="3.3162875199005724"><ele>548.0</ele><time>2026-04-02T14:14:40Z</time></trkpt><trkpt lat="44.06695701485861" lon="3.3164333790495073"><ele>555.3333333333333</ele><time>2026-04-02T14:14:41Z</time></trkpt><trkpt lat="44.06710379361932" lon="3.3165654598084413"><ele>562.6666666666666</ele><time>2026-04-02T14:14:42Z</time></trkpt><trkpt lat="44.06724891694757" lon="3.3166396807800553"><ele>570.0</ele><time>2026-04-02T14:14:43Z</time></trkpt><trkpt lat="44.067394006378116" lon="3.316710953542346"><ele>566.3333333333334</ele><time>2026-04-02T14:14:44Z</time></trkpt><trkpt lat="44.06756346862798" lon="3.3168412788091097"><ele>562.6666666666667</ele><time>2026-04-02T14:14:45Z</time></trkpt><trkpt lat="44.06773992422566" lon="3.316952410111165"><ele>559.0</ele><time>2026-04-02T14:14:46Z</time></trkpt><trkpt lat="44.067893428717625" lon="3.3171032556854114"><ele>558.3333333333334</ele><time>2026-04-02T14:14:47Z</time></trkpt><trkpt lat="44.068042251848986" lon="3.3172513962275825"><ele>557.6666666666666</ele><time>2026-04-02T14:14:48Z</time></trkpt><trkpt lat="44.06817575298314" lon="3.3173861805040876"><ele>557.0</ele><time>2026-04-02T14:14:49Z</time></trkpt><trkpt lat="44.068289481181644" lon="3.317506037442806"><ele>557.0</ele><time>2026-04-02T14:14:50Z</time></trkpt><trkpt lat="44.06838801215783" lon="3.3176536961106677"><ele>557.0</ele><time>2026-04-02T14:14:51Z</time></trkpt><trkpt lat="44.06847694481838" lon="3.317851007089368"><ele>557.0</ele><time>2026-04-02T14:14:52Z</time></trkpt><trkpt lat="44.06855001209561" lon="3.318074521043547"><ele>561.6666666666666</ele><time>2026-04-02T14:14:53Z</time></trkpt><trkpt lat="44.0686079671082" lon="3.3183141040587016"><ele>566.3333333333334</ele><time>2026-04-02T14:14:54Z</time></trkpt><trkpt lat="44.068675660483116" lon="3.3185625880059813"><ele>571.0</ele><time>2026-04-02T14:14:55Z</time></trkpt><trkpt lat="44.06876305853211" lon="3.318809258498588"><ele>573.0</ele><time>2026-04-02T14:14:56Z</time></trkpt><trkpt lat="44.06884932957133" lon="3.319037989320135"><ele>575.0</ele><time>2026-04-02T14:14:57Z</time></trkpt><trkpt lat="44.068933185450106" lon="3.319247530965778"><ele>577.0</ele><time>2026-04-02T14:14:58Z</time></trkpt><trkpt lat="44.069049559579796" lon="3.31944435308981"><ele>576.0</ele><time>2026-04-02T14:14:59Z</time></trkpt><trkpt lat="44.06919103119176" lon="3.319615276878984"><ele>575.0</ele><time>2026-04-02T14:15:00Z</time></trkpt><trkpt lat="44.06934020692242" lon="3.3197785621687803"><ele>574.0</ele><time>2026-04-02T14:15:01Z</time></trkpt><trkpt lat="44.06949861579877" lon="3.31992775315355"><ele>574.0</ele><time>2026-04-02T14:15:02Z</time></trkpt><trkpt lat="44.069679649363906" lon="3.320052345789447"><ele>574.0</ele><time>2026-04-02T14:15:03Z</time></trkpt><trkpt lat="44.06985755648329" lon="3.3201676211877067"><ele>574.0</ele><time>2026-04-02T14:15:04Z</time></trkpt><trkpt lat="44.07004125007205" lon="3.3203083774288755"><ele>574.6666666666667</ele><time>2026-04-02T14:15:05Z</time></trkpt><trkpt lat="44.07022237401561" lon="3.3204456861476515"><ele>575.3333333333334</ele><time>2026-04-02T14:15:06Z</time></trkpt><trkpt lat="44.070392406833165" lon="3.3205952557013076"><ele>576.0</ele><time>2026-04-02T14:15:07Z</time></trkpt><trkpt lat="44.0705460235855" lon="3.3207539438112033"><ele>576.0</ele><time>2026-04-02T14:15:08Z</time></trkpt><trkpt lat="44.070705727208015" lon="3.320895723745869"><ele>576.0</ele><time>2026-04-02T14:15:09Z</time></trkpt><trkpt lat="44.07089576831495" lon="3.3210276066871454"><ele>576.0</ele><time>2026-04-02T14:15:10Z</time></trkpt><trkpt lat="44.07110305258542" lon="3.3210336248938948"><ele>577.4</ele><time>2026-04-02T14:15:11Z</time></trkpt><trkpt lat="44.071235272242205" lon="3.321061895446321"><ele>578.8</ele><time>2026-04-02T14:15:12Z</time></trkpt><trkpt lat="44.07131061361828" lon="3.3211020093303656"><ele>580.1999999999999</ele><time>2026-04-02T14:15:13Z</time></trkpt><trkpt lat="44.07136850141806" lon="3.321152030721038"><ele>581.6</ele><time>2026-04-02T14:15:14Z</time></trkpt><trkpt lat="44.071441925060896" lon="3.321265920663965"><ele>583.0</ele><time>2026-04-02T14:15:15Z</time></trkpt><trkpt lat="44.07152917867113" lon="3.3214170475985725"><ele>576.5</ele><time>2026-04-02T14:15:16Z</time></trkpt><trkpt lat="44.0716199958185" lon="3.3215805179991436"><ele>570.0</ele><time>2026-04-02T14:15:17Z</time></trkpt><trkpt lat="44.07171682251531" lon="3.321755859224184"><ele>563.5</ele><time>2026-04-02T14:15:18Z</time></trkpt><trkpt lat="44.07179057719717" lon="3.3219080093464597"><ele>557.0</ele><time>2026-04-02T14:15:19Z</time></trkpt><trkpt lat="44.07188009687506" lon="3.3220181191788747"><ele>557.0</ele><time>2026-04-02T14:15:20Z</time></trkpt><trkpt lat="44.07195847750551" lon="3.3221538810370816"><ele>557.0</ele><time>2026-04-02T14:15:21Z</time></trkpt><trkpt lat="44.072009011027276" lon="3.3222966927761313"><ele>557.0</ele><time>2026-04-02T14:15:22Z</time></trkpt><trkpt lat="44.0719955029185" lon="3.322458538622996"><ele>557.0</ele><time>2026-04-02T14:15:23Z</time></trkpt><trkpt lat="44.07196597132414" lon="3.3226224046558213"><ele>560.25</ele><time>2026-04-02T14:15:24Z</time></trkpt><trkpt lat="44.071930679809775" lon="3.322803380035157"><ele>563.5</ele><time>2026-04-02T14:15:25Z</time></trkpt><trkpt lat="44.07189643113026" lon="3.3229950860144672"><ele>566.75</ele><time>2026-04-02T14:15:26Z</time></trkpt><trkpt lat="44.07187185726596" lon="3.323188439587138"><ele>570.0</ele><time>2026-04-02T14:15:27Z</time></trkpt><trkpt lat="44.07184105933077" lon="3.323380979092921"><ele>570.0</ele><time>2026-04-02T14:15:28Z</time></trkpt><trkpt lat="44.07180482524518" lon="3.3235801629703836"><ele>570.0</ele><time>2026-04-02T14:15:29Z</time></trkpt><trkpt lat="44.071765925880065" lon="3.323777933713122"><ele>570.0</ele><time>2026-04-02T14:15:30Z</time></trkpt><trkpt lat="44.07177100362359" lon="3.323984335740596"><ele>570.0</ele><time>2026-04-02T14:15:31Z</time></trkpt><trkpt lat="44.07178759514406" lon="3.3241968492595038"><ele>569.0</ele><time>2026-04-02T14:15:32Z</time></trkpt><trkpt lat="44.071806221589945" lon="3.3244143477093417"><ele>568.0</ele><time>2026-04-02T14:15:33Z</time></trkpt><trkpt lat="44.07181381074956" lon="3.3246494569267395"><ele>567.0</ele><time>2026-04-02T14:15:34Z</time></trkpt><trkpt lat="44.071836391425606" lon="3.32489309485927"><ele>567.0</ele><time>2026-04-02T14:15:35Z</time></trkpt><trkpt lat="44.07185712404215" lon="3.325140597228999"><ele>567.0</ele><time>2026-04-02T14:15:36Z</time></trkpt><trkpt lat="44.071874610144896" lon="3.325381856487146"><ele>567.0</ele><time>2026-04-02T14:15:37Z</time></trkpt><trkpt lat="44.071901020061325" lon="3.325598254681456"><ele>569.3333333333334</ele><time>2026-04-02T14:15:38Z</time></trkpt><trkpt lat="44.0719814713392" lon="3.3257829445534535"><ele>571.6666666666667</ele><time>2026-04-02T14:15:39Z</time></trkpt><trkpt lat="44.07208320912823" lon="3.325972849116255"><ele>574.0</ele><time>2026-04-02T14:15:40Z</time></trkpt><trkpt lat="44.07219087203098" lon="3.326169854106652"><ele>574.0</ele><time>2026-04-02T14:15:41Z</time></trkpt><trkpt lat="44.07228399522545" lon="3.3263707721671545"><ele>574.0</ele><time>2026-04-02T14:15:42Z</time></trkpt><trkpt lat="44.072358822234534" lon="3.3265635701968805"><ele>574.0</ele><time>2026-04-02T14:15:43Z</time></trkpt><trkpt lat="44.072411095369894" lon="3.3267677982075234"><ele>578.0</ele><time>2026-04-02T14:15:44Z</time></trkpt><trkpt lat="44.07242762687557" lon="3.3269671528002402"><ele>582.0</ele><time>2026-04-02T14:15:45Z</time></trkpt><trkpt lat="44.072387438945775" lon="3.3271464713646646"><ele>586.0</ele><time>2026-04-02T14:15:46Z</time></trkpt><trkpt lat="44.07232187618354" lon="3.327293523902363"><ele>590.0</ele><time>2026-04-02T14:15:47Z</time></trkpt><trkpt lat="44.07224614164956" lon="3.327467353503419"><ele>592.0</ele><time>2026-04-02T14:15:48Z</time></trkpt><trkpt lat="44.07219215512727" lon="3.3275859074426855"><ele>594.0</ele><time>2026-04-02T14:15:49Z</time></trkpt><trkpt lat="44.07219144541594" lon="3.3277361040694324"><ele>596.0</ele><time>2026-04-02T14:15:50Z</time></trkpt><trkpt lat="44.072289429151034" lon="3.3278539887476333"><ele>598.0</ele><time>2026-04-02T14:15:51Z</time></trkpt><trkpt lat="44.07237613571676" lon="3.3279924895782425"><ele>587.5</ele><time>2026-04-02T14:15:52Z</time></trkpt><trkpt lat="44.07244856187095" lon="3.328130839178188"><ele>577.0</ele><time>2026-04-02T14:15:53Z</time></trkpt><trkpt lat="44.07248853445448" lon="3.3283093043188368"><ele>566.5</ele><time>2026-04-02T14:15:54Z</time></trkpt><trkpt lat="44.072497206063325" lon="3.3285050413616903"><ele>556.0</ele><time>2026-04-02T14:15:55Z</time></trkpt><trkpt lat="44.072518934776355" lon="3.3287106820746706"><ele>559.6666666666667</ele><time>2026-04-02T14:15:56Z</time></trkpt><trkpt lat="44.07258653335538" lon="3.3289017466375594"><ele>563.3333333333334</ele><time>2026-04-02T14:15:57Z</time></trkpt><trkpt lat="44.072682730754536" lon="3.32908531570084"><ele>567.0</ele><time>2026-04-02T14:15:58Z</time></trkpt><trkpt lat="44.07279245170733" lon="3.329251264493944"><ele>567.0</ele><time>2026-04-02T14:15:59Z</time></trkpt><trkpt lat="44.07291917789272" lon="3.3294013942365077"><ele>567.0</ele><time>2026-04-02T14:16:00Z</time></trkpt><trkpt lat="44.07304930216836" lon="3.329540300397504"><ele>567.0</ele><time>2026-04-02T14:16:01Z</time></trkpt><trkpt lat="44.0731631220938" lon="3.3296894123163474"><ele>570.25</ele><time>2026-04-02T14:16:02Z</time></trkpt><trkpt lat="44.073240551668036" lon="3.3298621615573234"><ele>573.5</ele><time>2026-04-02T14:16:03Z</time></trkpt><trkpt lat="44.07331138619854" lon="3.3300449557109473"><ele>576.75</ele><time>2026-04-02T14:16:04Z</time></trkpt><trkpt lat="44.073437568586" lon="3.330158586637781"><ele>580.0</ele><time>2026-04-02T14:16:05Z</time></trkpt><trkpt lat="44.07355933495721" lon="3.3302979511353237"><ele>574.0</ele><time>2026-04-02T14:16:06Z</time></trkpt><trkpt lat="44.07367569588256" lon="3.3304611695980055"><ele>568.0</ele><time>2026-04-02T14:16:07Z</time></trkpt><trkpt lat="44.07379570628542" lon="3.3306132286246917"><ele>562.0</ele><time>2026-04-02T14:16:08Z</time></trkpt><trkpt lat="44.07388413197546" lon="3.3307270619379925"><ele>556.0</ele><time>2026-04-02T14:16:09Z</time></trkpt><trkpt lat="44.073928468108136" lon="3.330856171877963"><ele>556.0</ele><time>2026-04-02T14:16:10Z</time></trkpt><trkpt lat="44.07390537903181" lon="3.331014462955041"><ele>556.0</ele><time>2026-04-02T14:16:11Z</time></trkpt><trkpt lat="44.07385361908228" lon="3.331163186422719"><ele>556.0</ele><time>2026-04-02T14:16:12Z</time></trkpt><trkpt lat="44.0737931389744" lon="3.3313376915825956"><ele>556.0</ele><time>2026-04-02T14:16:13Z</time></trkpt><trkpt lat="44.07371619098915" lon="3.33151409617567"><ele>554.75</ele><time>2026-04-02T14:16:14Z</time></trkpt><trkpt lat="44.07363767119457" lon="3.3316948833049307"><ele>553.5</ele><time>2026-04-02T14:16:15Z</time></trkpt><trkpt lat="44.07356026569369" lon="3.3318662416286267"><ele>552.25</ele><time>2026-04-02T14:16:16Z</time></trkpt><trkpt lat="44.073500939645704" lon="3.3320106671442367"><ele>551.0</ele><time>2026-04-02T14:16:17Z</time></trkpt><trkpt lat="44.07345984416176" lon="3.332115285609401"><ele>551.0</ele><time>2026-04-02T14:16:18Z</time></trkpt><trkpt lat="44.073345450184" lon="3.332204205090915"><ele>551.0</ele><time>2026-04-02T14:16:20Z</time></trkpt><trkpt lat="44.073271260850504" lon="3.332113475662827"><ele>551.0</ele><time>2026-04-02T14:16:21Z</time></trkpt><trkpt lat="44.07317792678056" lon="3.3321119359553815"><ele>551.0</ele><time>2026-04-02T14:16:22Z</time></trkpt><trkpt lat="44.073077991684464" lon="3.3320925161392845"><ele>551.0</ele><time>2026-04-02T14:16:23Z</time></trkpt><trkpt lat="44.072978859933755" lon="3.332134142804345"><ele>552.4</ele><time>2026-04-02T14:16:24Z</time></trkpt><trkpt lat="44.07289900545127" lon="3.332223904962971"><ele>553.8</ele><time>2026-04-02T14:16:25Z</time></trkpt><trkpt lat="44.0728514902265" lon="3.332356663921518"><ele>555.1999999999999</ele><time>2026-04-02T14:16:26Z</time></trkpt><trkpt lat="44.07281911327258" lon="3.3325235325034663"><ele>556.6</ele><time>2026-04-02T14:16:27Z</time></trkpt><trkpt lat="44.07277289308459" lon="3.332669808555643"><ele>558.0</ele><time>2026-04-02T14:16:28Z</time></trkpt><trkpt lat="44.07271820774312" lon="3.3327706106940838"><ele>558.0</ele><time>2026-04-02T14:16:29Z</time></trkpt><trkpt lat="44.07264098620711" lon="3.3328417538207527"><ele>558.0</ele><time>2026-04-02T14:16:30Z</time></trkpt><trkpt lat="44.072562275756894" lon="3.332899101167018"><ele>558.0</ele><time>2026-04-02T14:16:31Z</time></trkpt><trkpt lat="44.07252889830298" lon="3.332995641691009"><ele>558.0</ele><time>2026-04-02T14:16:32Z</time></trkpt><trkpt lat="44.072550507283964" lon="3.333119603952123"><ele>558.0</ele><time>2026-04-02T14:16:33Z</time></trkpt><trkpt lat="44.07257507490937" lon="3.3332445011706575"><ele>558.0</ele><time>2026-04-02T14:16:34Z</time></trkpt><trkpt lat="44.07259503150869" lon="3.3333583501561908"><ele>557.3333333333334</ele><time>2026-04-02T14:16:35Z</time></trkpt><trkpt lat="44.07264011827945" lon="3.3334474884516916"><ele>556.6666666666666</ele><time>2026-04-02T14:16:36Z</time></trkpt><trkpt lat="44.07271850388717" lon="3.333474959782881"><ele>556.0</ele><time>2026-04-02T14:16:37Z</time></trkpt><trkpt lat="44.07281317762549" lon="3.3334596242679306"><ele>555.3333333333333</ele><time>2026-04-02T14:16:38Z</time></trkpt><trkpt lat="44.07290900096527" lon="3.333460566200479"><ele>554.6666666666666</ele><time>2026-04-02T14:16:39Z</time></trkpt><trkpt lat="44.0730023197433" lon="3.3335060544922706"><ele>554.0</ele><time>2026-04-02T14:16:40Z</time></trkpt><trkpt lat="44.073100697186376" lon="3.333603408873122"><ele>554.0</ele><time>2026-04-02T14:16:41Z</time></trkpt><trkpt lat="44.07319524585619" lon="3.333752880298339"><ele>554.0</ele><time>2026-04-02T14:16:42Z</time></trkpt><trkpt lat="44.073286720745045" lon="3.3339154547757"><ele>554.0</ele><time>2026-04-02T14:16:43Z</time></trkpt><trkpt lat="44.07337084374554" lon="3.3340990304129954"><ele>554.0</ele><time>2026-04-02T14:16:44Z</time></trkpt><trkpt lat="44.07344244645325" lon="3.3342825555036346"><ele>551.6666666666666</ele><time>2026-04-02T14:16:45Z</time></trkpt><trkpt lat="44.0735258439872" lon="3.334472138791072"><ele>549.3333333333334</ele><time>2026-04-02T14:16:46Z</time></trkpt><trkpt lat="44.07361448602719" lon="3.334656903515552"><ele>547.0</ele><time>2026-04-02T14:16:47Z</time></trkpt><trkpt lat="44.073705710266786" lon="3.3348210421544744"><ele>546.5</ele><time>2026-04-02T14:16:48Z</time></trkpt><trkpt lat="44.07379707577171" lon="3.334957681875143"><ele>546.0</ele><time>2026-04-02T14:16:49Z</time></trkpt><trkpt lat="44.07391322272151" lon="3.3350472873446866"><ele>545.5</ele><time>2026-04-02T14:16:50Z</time></trkpt><trkpt lat="44.07405577536426" lon="3.3350819975047235"><ele>545.0</ele><time>2026-04-02T14:16:51Z</time></trkpt><trkpt lat="44.07421772569111" lon="3.3350830438981154"><ele>545.0</ele><time>2026-04-02T14:16:52Z</time></trkpt><trkpt lat="44.074389406173644" lon="3.335087527769333"><ele>545.0</ele><time>2026-04-02T14:16:53Z</time></trkpt><trkpt lat="44.07455972767361" lon="3.3350973450695665"><ele>545.0</ele><time>2026-04-02T14:16:54Z</time></trkpt><trkpt lat="44.074733637633855" lon="3.335055860776794"><ele>545.0</ele><time>2026-04-02T14:16:55Z</time></trkpt><trkpt lat="44.07489518608604" lon="3.3349831958552647"><ele>545.0</ele><time>2026-04-02T14:16:56Z</time></trkpt><trkpt lat="44.07504851923204" lon="3.3349334064276857"><ele>545.0</ele><time>2026-04-02T14:16:57Z</time></trkpt><trkpt lat="44.07517902302106" lon="3.3349253193240385"><ele>544.25</ele><time>2026-04-02T14:16:58Z</time></trkpt><trkpt lat="44.0753016193448" lon="3.3349762665805076"><ele>543.5</ele><time>2026-04-02T14:16:59Z</time></trkpt><trkpt lat="44.07538293706563" lon="3.3351166983703884"><ele>542.75</ele><time>2026-04-02T14:17:00Z</time></trkpt><trkpt lat="44.07543585311105" lon="3.3352712115564525"><ele>542.0</ele><time>2026-04-02T14:17:01Z</time></trkpt><trkpt lat="44.075438166328105" lon="3.3354489521683033"><ele>548.0</ele><time>2026-04-02T14:17:02Z</time></trkpt><trkpt lat="44.07542244334625" lon="3.33566331998821"><ele>554.0</ele><time>2026-04-02T14:17:03Z</time></trkpt><trkpt lat="44.07536308778082" lon="3.3358948385977967"><ele>560.0</ele><time>2026-04-02T14:17:04Z</time></trkpt><trkpt lat="44.07526722184824" lon="3.336125238293348"><ele>560.0</ele><time>2026-04-02T14:17:05Z</time></trkpt><trkpt lat="44.07518586348217" lon="3.3363541981663514"><ele>560.0</ele><time>2026-04-02T14:17:06Z</time></trkpt><trkpt lat="44.075119164040565" lon="3.3365804491850093"><ele>560.0</ele><time>2026-04-02T14:17:07Z</time></trkpt><trkpt lat="44.07504384729952" lon="3.336805278846822"><ele>559.6666666666666</ele><time>2026-04-02T14:17:08Z</time></trkpt><trkpt lat="44.07497716714689" lon="3.3370317862254777"><ele>559.3333333333334</ele><time>2026-04-02T14:17:09Z</time></trkpt><trkpt lat="44.0749195308449" lon="3.3372640801642954"><ele>559.0</ele><time>2026-04-02T14:17:10Z</time></trkpt><trkpt lat="44.07489791730523" lon="3.337510007204284"><ele>577.3333333333334</ele><time>2026-04-02T14:17:11Z</time></trkpt><trkpt lat="44.074908951857914" lon="3.337766266806315"><ele>595.6666666666666</ele><time>2026-04-02T14:17:12Z</time></trkpt><trkpt lat="44.074913055668986" lon="3.3380117051097127"><ele>614.0</ele><time>2026-04-02T14:17:13Z</time></trkpt><trkpt lat="44.07492882650793" lon="3.3382472265695005"><ele>593.6666666666666</ele><time>2026-04-02T14:17:14Z</time></trkpt><trkpt lat="44.074968007912936" lon="3.338477401110292"><ele>573.3333333333334</ele><time>2026-04-02T14:17:15Z</time></trkpt><trkpt lat="44.07504410913076" lon="3.3386808838749458"><ele>553.0</ele><time>2026-04-02T14:17:16Z</time></trkpt><trkpt lat="44.07514885066627" lon="3.3388610539833166"><ele>561.0</ele><time>2026-04-02T14:17:17Z</time></trkpt><trkpt lat="44.07525619449514" lon="3.3390210491824375"><ele>569.0</ele><time>2026-04-02T14:17:18Z</time></trkpt><trkpt lat="44.07535742095806" lon="3.3391846706201185"><ele>577.0</ele><time>2026-04-02T14:17:19Z</time></trkpt><trkpt lat="44.075474107144615" lon="3.3393378828464284"><ele>577.0</ele><time>2026-04-02T14:17:20Z</time></trkpt><trkpt lat="44.075629601819934" lon="3.3394027520072185"><ele>577.0</ele><time>2026-04-02T14:17:21Z</time></trkpt><trkpt lat="44.07578443017677" lon="3.339469270786039"><ele>577.0</ele><time>2026-04-02T14:17:22Z</time></trkpt><trkpt lat="44.075953937010226" lon="3.3394812047301197"><ele>576.0</ele><time>2026-04-02T14:17:23Z</time></trkpt><trkpt lat="44.07613020002354" lon="3.3395351568070053"><ele>575.0</ele><time>2026-04-02T14:17:24Z</time></trkpt><trkpt lat="44.076296620702664" lon="3.3396349794206515"><ele>574.0</ele><time>2026-04-02T14:17:25Z</time></trkpt><trkpt lat="44.07644094848308" lon="3.3397801585659934"><ele>574.0</ele><time>2026-04-02T14:17:26Z</time></trkpt><trkpt lat="44.076565476080056" lon="3.339967496819325"><ele>574.0</ele><time>2026-04-02T14:17:27Z</time></trkpt><trkpt lat="44.07665559611501" lon="3.340188141022517"><ele>574.0</ele><time>2026-04-02T14:17:28Z</time></trkpt><trkpt lat="44.07666246456411" lon="3.3404246577689998"><ele>579.3333333333334</ele><time>2026-04-02T14:17:29Z</time></trkpt><trkpt lat="44.07664817277189" lon="3.340654497500771"><ele>584.6666666666666</ele><time>2026-04-02T14:17:30Z</time></trkpt><trkpt lat="44.07658750472807" lon="3.3408902810343615"><ele>590.0</ele><time>2026-04-02T14:17:31Z</time></trkpt><trkpt lat="44.07654222763152" lon="3.341151988518307"><ele>590.6666666666666</ele><time>2026-04-02T14:17:32Z</time></trkpt><trkpt lat="44.076482708823065" lon="3.341407160428723"><ele>591.3333333333334</ele><time>2026-04-02T14:17:33Z</time></trkpt><trkpt lat="44.076444662050065" lon="3.341683421878287"><ele>592.0</ele><time>2026-04-02T14:17:34Z</time></trkpt><trkpt lat="44.07640614649757" lon="3.341944626562931"><ele>592.0</ele><time>2026-04-02T14:17:35Z</time></trkpt><trkpt lat="44.076365313258506" lon="3.3421994002767113"><ele>592.0</ele><time>2026-04-02T14:17:36Z</time></trkpt><trkpt lat="44.07631242367215" lon="3.342479135999259"><ele>592.0</ele><time>2026-04-02T14:17:37Z</time></trkpt><trkpt lat="44.076267926995854" lon="3.3427328603014996"><ele>590.0</ele><time>2026-04-02T14:17:38Z</time></trkpt><trkpt lat="44.07623786371129" lon="3.3429988829472026"><ele>588.0</ele><time>2026-04-02T14:17:39Z</time></trkpt><trkpt lat="44.07625568173461" lon="3.3432612255020775"><ele>586.0</ele><time>2026-04-02T14:17:40Z</time></trkpt><trkpt lat="44.07630519664725" lon="3.343524054002555"><ele>585.3333333333334</ele><time>2026-04-02T14:17:41Z</time></trkpt><trkpt lat="44.07634345481873" lon="3.3438176265518336"><ele>584.6666666666666</ele><time>2026-04-02T14:17:42Z</time></trkpt><trkpt lat="44.07639229582858" lon="3.3441158860733244"><ele>584.0</ele><time>2026-04-02T14:17:43Z</time></trkpt><trkpt lat="44.0764550454973" lon="3.344403186203008"><ele>586.0</ele><time>2026-04-02T14:17:44Z</time></trkpt><trkpt lat="44.07649398554394" lon="3.344697560587884"><ele>588.0</ele><time>2026-04-02T14:17:45Z</time></trkpt><trkpt lat="44.07651723339353" lon="3.3449755746497023"><ele>590.0</ele><time>2026-04-02T14:17:46Z</time></trkpt><trkpt lat="44.07647238142737" lon="3.345234754607994"><ele>590.0</ele><time>2026-04-02T14:17:47Z</time></trkpt><trkpt lat="44.0764329573634" lon="3.3455289964825665"><ele>590.0</ele><time>2026-04-02T14:17:48Z</time></trkpt><trkpt lat="44.07636433472371" lon="3.3457873423107984"><ele>590.0</ele><time>2026-04-02T14:17:49Z</time></trkpt><trkpt lat="44.0762947034307" lon="3.346039594145031"><ele>586.6666666666666</ele><time>2026-04-02T14:17:50Z</time></trkpt><trkpt lat="44.076197132968936" lon="3.3462713311765637"><ele>583.3333333333334</ele><time>2026-04-02T14:17:51Z</time></trkpt><trkpt lat="44.07607336848406" lon="3.34648071523526"><ele>580.0</ele><time>2026-04-02T14:17:52Z</time></trkpt><trkpt lat="44.075945192439185" lon="3.3466890581859197"><ele>579.6666666666667</ele><time>2026-04-02T14:17:53Z</time></trkpt><trkpt lat="44.07581973674808" lon="3.3469020023015945"><ele>579.3333333333334</ele><time>2026-04-02T14:17:54Z</time></trkpt><trkpt lat="44.07569550863174" lon="3.3471183892940015"><ele>579.0</ele><time>2026-04-02T14:17:55Z</time></trkpt><trkpt lat="44.075582824583236" lon="3.3473213198286196"><ele>579.0</ele><time>2026-04-02T14:17:56Z</time></trkpt><trkpt lat="44.07547860659021" lon="3.3475125304007265"><ele>579.0</ele><time>2026-04-02T14:17:57Z</time></trkpt><trkpt lat="44.075394502503414" lon="3.3477128088070343"><ele>579.0</ele><time>2026-04-02T14:17:58Z</time></trkpt><trkpt lat="44.07535126772517" lon="3.34794608196102"><ele>576.6666666666666</ele><time>2026-04-02T14:17:59Z</time></trkpt><trkpt lat="44.075340250743594" lon="3.3482195162399293"><ele>574.3333333333333</ele><time>2026-04-02T14:18:00Z</time></trkpt><trkpt lat="44.07533028260913" lon="3.3484815347602193"><ele>572.0</ele><time>2026-04-02T14:18:01Z</time></trkpt><trkpt lat="44.07532796527382" lon="3.3487411818058215"><ele>573.0</ele><time>2026-04-02T14:18:02Z</time></trkpt><trkpt lat="44.07535990712225" lon="3.3490072974653917"><ele>574.0</ele><time>2026-04-02T14:18:03Z</time></trkpt><trkpt lat="44.07542970079307" lon="3.349274004844392"><ele>575.0</ele><time>2026-04-02T14:18:04Z</time></trkpt><trkpt lat="44.075516622895606" lon="3.3495516738499873"><ele>577.0</ele><time>2026-04-02T14:18:05Z</time></trkpt><trkpt lat="44.075592408409705" lon="3.3498279877883657"><ele>579.0</ele><time>2026-04-02T14:18:06Z</time></trkpt><trkpt lat="44.07566645195857" lon="3.3501128502456377"><ele>581.0</ele><time>2026-04-02T14:18:07Z</time></trkpt><trkpt lat="44.07574506455186" lon="3.350384189885118"><ele>574.3333333333333</ele><time>2026-04-02T14:18:08Z</time></trkpt><trkpt lat="44.075840284594804" lon="3.3506426442886452"><ele>567.6666666666666</ele><time>2026-04-02T14:18:09Z</time></trkpt><trkpt lat="44.07596522838393" lon="3.3508831788482354"><ele>561.0</ele><time>2026-04-02T14:18:10Z</time></trkpt><trkpt lat="44.07611846098978" lon="3.351114127265777"><ele>561.0</ele><time>2026-04-02T14:18:11Z</time></trkpt><trkpt lat="44.076252789129754" lon="3.3513386519634647"><ele>561.0</ele><time>2026-04-02T14:18:12Z</time></trkpt><trkpt lat="44.076404605186184" lon="3.3515635903683"><ele>561.0</ele><time>2026-04-02T14:18:13Z</time></trkpt><trkpt lat="44.076555548413054" lon="3.3517547203607254"><ele>560.0</ele><time>2026-04-02T14:18:14Z</time></trkpt><trkpt lat="44.07668538247569" lon="3.351946713507685"><ele>559.0</ele><time>2026-04-02T14:18:15Z</time></trkpt><trkpt lat="44.076812723011884" lon="3.3521458672780846"><ele>558.0</ele><time>2026-04-02T14:18:16Z</time></trkpt><trkpt lat="44.076930332173916" lon="3.3523604373299096"><ele>558.0</ele><time>2026-04-02T14:18:17Z</time></trkpt><trkpt lat="44.07703314771355" lon="3.3525920304963437"><ele>558.0</ele><time>2026-04-02T14:18:18Z</time></trkpt><trkpt lat="44.07711499345164" lon="3.352824143269498"><ele>558.0</ele><time>2026-04-02T14:18:19Z</time></trkpt><trkpt lat="44.07715418792064" lon="3.3530603258120286"><ele>563.0</ele><time>2026-04-02T14:18:20Z</time></trkpt><trkpt lat="44.07716840047817" lon="3.353297506070101"><ele>568.0</ele><time>2026-04-02T14:18:21Z</time></trkpt><trkpt lat="44.07718200636843" lon="3.353558587090197"><ele>573.0</ele><time>2026-04-02T14:18:22Z</time></trkpt><trkpt lat="44.077203759424314" lon="3.353839075904185"><ele>571.0</ele><time>2026-04-02T14:18:23Z</time></trkpt><trkpt lat="44.077205567266745" lon="3.354113034220374"><ele>569.0</ele><time>2026-04-02T14:18:24Z</time></trkpt><trkpt lat="44.07720797551087" lon="3.354366510687929"><ele>567.0</ele><time>2026-04-02T14:18:25Z</time></trkpt><trkpt lat="44.07720277254087" lon="3.354586653732685"><ele>562.25</ele><time>2026-04-02T14:18:26Z</time></trkpt><trkpt lat="44.077140948496655" lon="3.354754836556933"><ele>557.5</ele><time>2026-04-02T14:18:27Z</time></trkpt><trkpt lat="44.077048928202714" lon="3.3548888277390634"><ele>552.75</ele><time>2026-04-02T14:18:28Z</time></trkpt><trkpt lat="44.07692116524795" lon="3.3550109450447048"><ele>548.0</ele><time>2026-04-02T14:18:29Z</time></trkpt><trkpt lat="44.076825204095414" lon="3.355139364640263"><ele>548.0</ele><time>2026-04-02T14:18:30Z</time></trkpt><trkpt lat="44.07675674250802" lon="3.3552662616305935"><ele>548.0</ele><time>2026-04-02T14:18:31Z</time></trkpt><trkpt lat="44.07676430655662" lon="3.3554131958707587"><ele>548.0</ele><time>2026-04-02T14:18:32Z</time></trkpt><trkpt lat="44.07684465142647" lon="3.355553464919527"><ele>548.0</ele><time>2026-04-02T14:18:33Z</time></trkpt><trkpt lat="44.07694199848124" lon="3.355697688397485"><ele>545.4</ele><time>2026-04-02T14:18:34Z</time></trkpt><trkpt lat="44.07704032760444" lon="3.3558214706576868"><ele>542.8</ele><time>2026-04-02T14:18:35Z</time></trkpt><trkpt lat="44.07707703742561" lon="3.355949614747322"><ele>540.2</ele><time>2026-04-02T14:18:36Z</time></trkpt><trkpt lat="44.07702680367241" lon="3.3560709828894457"><ele>537.6</ele><time>2026-04-02T14:18:37Z</time></trkpt><trkpt lat="44.07696432657675" lon="3.356191067968017"><ele>535.0</ele><time>2026-04-02T14:18:38Z</time></trkpt><trkpt lat="44.076885301643905" lon="3.35635657989005"><ele>536.0</ele><time>2026-04-02T14:18:39Z</time></trkpt><trkpt lat="44.076807318283336" lon="3.356571883534539"><ele>537.0</ele><time>2026-04-02T14:18:40Z</time></trkpt><trkpt lat="44.0767084779018" lon="3.356791012966336"><ele>538.0</ele><time>2026-04-02T14:18:41Z</time></trkpt><trkpt lat="44.07660981505902" lon="3.3569812232294565"><ele>539.3333333333334</ele><time>2026-04-02T14:18:42Z</time></trkpt><trkpt lat="44.0765166356868" lon="3.357179190330561"><ele>540.6666666666666</ele><time>2026-04-02T14:18:43Z</time></trkpt><trkpt lat="44.07642801231175" lon="3.3573994490790473"><ele>542.0</ele><time>2026-04-02T14:18:44Z</time></trkpt><trkpt lat="44.07637652492381" lon="3.3576432241549656"><ele>542.0</ele><time>2026-04-02T14:18:45Z</time></trkpt><trkpt lat="44.076352636105874" lon="3.3579029385838037"><ele>542.0</ele><time>2026-04-02T14:18:46Z</time></trkpt><trkpt lat="44.076363461079396" lon="3.3581860301095308"><ele>542.0</ele><time>2026-04-02T14:18:47Z</time></trkpt><trkpt lat="44.07637434075854" lon="3.358466359085262"><ele>542.0</ele><time>2026-04-02T14:18:48Z</time></trkpt><trkpt lat="44.07635843990783" lon="3.358758322210285"><ele>542.0</ele><time>2026-04-02T14:18:49Z</time></trkpt><trkpt lat="44.07637592796771" lon="3.3590526961932476"><ele>542.0</ele><time>2026-04-02T14:18:50Z</time></trkpt><trkpt lat="44.07637842120717" lon="3.3593511153969753"><ele>542.0</ele><time>2026-04-02T14:18:51Z</time></trkpt><trkpt lat="44.07639985782489" lon="3.3596473255853945"><ele>542.0</ele><time>2026-04-02T14:18:52Z</time></trkpt><trkpt lat="44.07643482538041" lon="3.3599494411259454"><ele>542.0</ele><time>2026-04-02T14:18:53Z</time></trkpt><trkpt lat="44.076459298870844" lon="3.3602586225072075"><ele>542.3333333333333</ele><time>2026-04-02T14:18:54Z</time></trkpt><trkpt lat="44.07643272266094" lon="3.36052958667352"><ele>542.6666666666666</ele><time>2026-04-02T14:18:55Z</time></trkpt><trkpt lat="44.07640113719755" lon="3.3607993075471962"><ele>543.0</ele><time>2026-04-02T14:18:56Z</time></trkpt><trkpt lat="44.07634720429415" lon="3.36107729050582"><ele>541.5</ele><time>2026-04-02T14:18:57Z</time></trkpt><trkpt lat="44.07627801997443" lon="3.361389914073"><ele>540.0</ele><time>2026-04-02T14:18:58Z</time></trkpt><trkpt lat="44.07621907764551" lon="3.361728069678782"><ele>540.0</ele><time>2026-04-02T14:18:59Z</time></trkpt><trkpt lat="44.07613758100608" lon="3.3620828240702108"><ele>540.0</ele><time>2026-04-02T14:19:00Z</time></trkpt><trkpt lat="44.07604022871005" lon="3.362399923467619"><ele>540.0</ele><time>2026-04-02T14:19:01Z</time></trkpt><trkpt lat="44.07595361655538" lon="3.3627089887715056"><ele>540.0</ele><time>2026-04-02T14:19:02Z</time></trkpt><trkpt lat="44.07587377902435" lon="3.363025449446829"><ele>543.3333333333334</ele><time>2026-04-02T14:19:03Z</time></trkpt><trkpt lat="44.07578622863282" lon="3.3633127664188613"><ele>546.6666666666667</ele><time>2026-04-02T14:19:04Z</time></trkpt><trkpt lat="44.07571666854417" lon="3.36356501396185"><ele>550.0</ele><time>2026-04-02T14:19:05Z</time></trkpt><trkpt lat="44.075658752298764" lon="3.3637958985984415"><ele>548.6666666666667</ele><time>2026-04-02T14:19:06Z</time></trkpt><trkpt lat="44.07562015185232" lon="3.3640245177781862"><ele>547.3333333333334</ele><time>2026-04-02T14:19:07Z</time></trkpt><trkpt lat="44.07562125822189" lon="3.3642977199980084"><ele>546.0</ele><time>2026-04-02T14:19:08Z</time></trkpt><trkpt lat="44.07564090376478" lon="3.364581348391649"><ele>545.0</ele><time>2026-04-02T14:19:09Z</time></trkpt><trkpt lat="44.075631749004536" lon="3.364863243559742"><ele>544.0</ele><time>2026-04-02T14:19:10Z</time></trkpt><trkpt lat="44.075648473820564" lon="3.365138672859352"><ele>543.0</ele><time>2026-04-02T14:19:11Z</time></trkpt><trkpt lat="44.075668057259925" lon="3.365394308906745"><ele>543.0</ele><time>2026-04-02T14:19:12Z</time></trkpt><trkpt lat="44.075664370241476" lon="3.3656273569778685"><ele>543.0</ele><time>2026-04-02T14:19:13Z</time></trkpt><trkpt lat="44.075615103272575" lon="3.3658428141341665"><ele>543.0</ele><time>2026-04-02T14:19:14Z</time></trkpt><trkpt lat="44.07557708713172" lon="3.366097539259989"><ele>543.0</ele><time>2026-04-02T14:19:15Z</time></trkpt><trkpt lat="44.07554143805396" lon="3.36637901495843"><ele>543.0</ele><time>2026-04-02T14:19:16Z</time></trkpt><trkpt lat="44.07552178588808" lon="3.366665966690764"><ele>543.0</ele><time>2026-04-02T14:19:17Z</time></trkpt><trkpt lat="44.07550023489306" lon="3.3669385660546847"><ele>544.3333333333334</ele><time>2026-04-02T14:19:18Z</time></trkpt><trkpt lat="44.075486644898014" lon="3.367196396812978"><ele>545.6666666666667</ele><time>2026-04-02T14:19:19Z</time></trkpt><trkpt lat="44.075470155863414" lon="3.367428755019724"><ele>547.0</ele><time>2026-04-02T14:19:20Z</time></trkpt><trkpt lat="44.07546359483813" lon="3.367657828851082"><ele>547.0</ele><time>2026-04-02T14:19:21Z</time></trkpt><trkpt lat="44.07548181054284" lon="3.3678909972440674"><ele>547.0</ele><time>2026-04-02T14:19:22Z</time></trkpt><trkpt lat="44.07554198061977" lon="3.3681333841739955"><ele>547.0</ele><time>2026-04-02T14:19:23Z</time></trkpt><trkpt lat="44.07562475050301" lon="3.368377354580479"><ele>547.3333333333334</ele><time>2026-04-02T14:19:24Z</time></trkpt><trkpt lat="44.07570032954819" lon="3.368595277498291"><ele>547.6666666666666</ele><time>2026-04-02T14:19:25Z</time></trkpt><trkpt lat="44.07576373856041" lon="3.3688006518347096"><ele>548.0</ele><time>2026-04-02T14:19:26Z</time></trkpt><trkpt lat="44.07583657739415" lon="3.3689772514271707"><ele>550.0</ele><time>2026-04-02T14:19:27Z</time></trkpt><trkpt lat="44.075943997069345" lon="3.369103387645405"><ele>552.0</ele><time>2026-04-02T14:19:28Z</time></trkpt><trkpt lat="44.07608277058672" lon="3.3691943901657937"><ele>554.0</ele><time>2026-04-02T14:19:29Z</time></trkpt><trkpt lat="44.0762188189231" lon="3.3693087925460916"><ele>554.0</ele><time>2026-04-02T14:19:30Z</time></trkpt><trkpt lat="44.07631915989488" lon="3.3694974263983775"><ele>554.0</ele><time>2026-04-02T14:19:31Z</time></trkpt><trkpt lat="44.0764259761873" lon="3.3696861336762223"><ele>554.0</ele><time>2026-04-02T14:19:32Z</time></trkpt><trkpt lat="44.07653055520364" lon="3.369878631297485"><ele>561.0</ele><time>2026-04-02T14:19:33Z</time></trkpt><trkpt lat="44.07660864691513" lon="3.370071525089109"><ele>568.0</ele><time>2026-04-02T14:19:34Z</time></trkpt><trkpt lat="44.07664456613291" lon="3.3702928327718444"><ele>575.0</ele><time>2026-04-02T14:19:35Z</time></trkpt><trkpt lat="44.07669319819174" lon="3.370518460231574"><ele>572.0</ele><time>2026-04-02T14:19:36Z</time></trkpt><trkpt lat="44.07677199550566" lon="3.370717805973625"><ele>569.0</ele><time>2026-04-02T14:19:37Z</time></trkpt><trkpt lat="44.0768704279537" lon="3.3708718625255973"><ele>566.0</ele><time>2026-04-02T14:19:38Z</time></trkpt><trkpt lat="44.07694498068033" lon="3.3710272967023527"><ele>563.0</ele><time>2026-04-02T14:19:39Z</time></trkpt><trkpt lat="44.076895213342134" lon="3.3711973594574447"><ele>562.3333333333333</ele><time>2026-04-02T14:19:40Z</time></trkpt><trkpt lat="44.07686327592968" lon="3.371400061335218"><ele>561.6666666666666</ele><time>2026-04-02T14:19:41Z</time></trkpt><trkpt lat="44.076846411815296" lon="3.3716230327311516"><ele>561.0</ele><time>2026-04-02T14:19:42Z</time></trkpt><trkpt lat="44.07682865527941" lon="3.3718483830658523"><ele>561.0</ele><time>2026-04-02T14:19:43Z</time></trkpt><trkpt lat="44.076848387454085" lon="3.372082977265325"><ele>561.0</ele><time>2026-04-02T14:19:44Z</time></trkpt><trkpt lat="44.07690328707229" lon="3.3723019596395742"><ele>561.0</ele><time>2026-04-02T14:19:45Z</time></trkpt><trkpt lat="44.076982988566535" lon="3.3725063636509773"><ele>560.0</ele><time>2026-04-02T14:19:46Z</time></trkpt><trkpt lat="44.077078661844254" lon="3.372709329652403"><ele>559.0</ele><time>2026-04-02T14:19:47Z</time></trkpt><trkpt lat="44.077181582251505" lon="3.3729366370424456"><ele>558.0</ele><time>2026-04-02T14:19:48Z</time></trkpt><trkpt lat="44.07727943342648" lon="3.3731787952399337"><ele>560.0</ele><time>2026-04-02T14:19:49Z</time></trkpt><trkpt lat="44.07736510954806" lon="3.3734235232753313"><ele>562.0</ele><time>2026-04-02T14:19:50Z</time></trkpt><trkpt lat="44.07743339305518" lon="3.373688007454099"><ele>564.0</ele><time>2026-04-02T14:19:51Z</time></trkpt><trkpt lat="44.077480170213526" lon="3.3739654444575677"><ele>567.0</ele><time>2026-04-02T14:19:52Z</time></trkpt><trkpt lat="44.07751572482067" lon="3.3742343327457047"><ele>570.0</ele><time>2026-04-02T14:19:53Z</time></trkpt><trkpt lat="44.07755393303554" lon="3.3745108327926157"><ele>573.0</ele><time>2026-04-02T14:19:54Z</time></trkpt><trkpt lat="44.07756718199844" lon="3.374778467727602"><ele>573.0</ele><time>2026-04-02T14:19:55Z</time></trkpt><trkpt lat="44.07755456290288" lon="3.3750263382878263"><ele>573.0</ele><time>2026-04-02T14:19:56Z</time></trkpt><trkpt lat="44.077540023950874" lon="3.3752615515527196"><ele>573.0</ele><time>2026-04-02T14:19:57Z</time></trkpt><trkpt lat="44.07752933729594" lon="3.3754700786039717"><ele>570.0</ele><time>2026-04-02T14:19:58Z</time></trkpt><trkpt lat="44.077547039590726" lon="3.3756408367901116"><ele>567.0</ele><time>2026-04-02T14:19:59Z</time></trkpt><trkpt lat="44.07760722919909" lon="3.3757750760188245"><ele>564.0</ele><time>2026-04-02T14:20:00Z</time></trkpt><trkpt lat="44.07771956119724" lon="3.3758694818196724"><ele>561.0</ele><time>2026-04-02T14:20:01Z</time></trkpt><trkpt lat="44.07783289617981" lon="3.3759422300874613"><ele>561.0</ele><time>2026-04-02T14:20:02Z</time></trkpt><trkpt lat="44.0779459313879" lon="3.3760031214481083"><ele>561.0</ele><time>2026-04-02T14:20:03Z</time></trkpt><trkpt lat="44.07805955129622" lon="3.3760572422539163"><ele>561.0</ele><time>2026-04-02T14:20:04Z</time></trkpt><trkpt lat="44.07817867916062" lon="3.3761030466421884"><ele>561.0</ele><time>2026-04-02T14:20:05Z</time></trkpt><trkpt lat="44.078300610350475" lon="3.37615163589253"><ele>560.75</ele><time>2026-04-02T14:20:06Z</time></trkpt><trkpt lat="44.07843312320213" lon="3.37621050964034"><ele>560.5</ele><time>2026-04-02T14:20:07Z</time></trkpt><trkpt lat="44.07857363632058" lon="3.3762777734062324"><ele>560.25</ele><time>2026-04-02T14:20:08Z</time></trkpt><trkpt lat="44.078717332458524" lon="3.3763488009210407"><ele>560.0</ele><time>2026-04-02T14:20:09Z</time></trkpt><trkpt lat="44.07885838644077" lon="3.376414271355569"><ele>560.0</ele><time>2026-04-02T14:20:10Z</time></trkpt><trkpt lat="44.07899856351385" lon="3.376485960136443"><ele>560.0</ele><time>2026-04-02T14:20:11Z</time></trkpt><trkpt lat="44.079112190627555" lon="3.3765755167215827"><ele>560.0</ele><time>2026-04-02T14:20:12Z</time></trkpt><trkpt lat="44.07918601349437" lon="3.376723050112327"><ele>560.0</ele><time>2026-04-02T14:20:13Z</time></trkpt><trkpt lat="44.07923753951934" lon="3.3769155237824076"><ele>560.3333333333333</ele><time>2026-04-02T14:20:14Z</time></trkpt><trkpt lat="44.079319925431896" lon="3.3771075832259547"><ele>560.6666666666666</ele><time>2026-04-02T14:20:15Z</time></trkpt><trkpt lat="44.079432080571614" lon="3.377281941756906"><ele>561.0</ele><time>2026-04-02T14:20:16Z</time></trkpt><trkpt lat="44.079524892096444" lon="3.3774947402980735"><ele>561.0</ele><time>2026-04-02T14:20:17Z</time></trkpt><trkpt lat="44.0795932010963" lon="3.377743200626179"><ele>561.0</ele><time>2026-04-02T14:20:18Z</time></trkpt><trkpt lat="44.07964623604802" lon="3.3779916633515157"><ele>561.0</ele><time>2026-04-02T14:20:19Z</time></trkpt><trkpt lat="44.07969066176547" lon="3.3782275377823336"><ele>561.3333333333334</ele><time>2026-04-02T14:20:20Z</time></trkpt><trkpt lat="44.07972414608796" lon="3.3784731608040603"><ele>561.6666666666667</ele><time>2026-04-02T14:20:21Z</time></trkpt><trkpt lat="44.079737450514806" lon="3.378704202448886"><ele>562.0</ele><time>2026-04-02T14:20:22Z</time></trkpt><trkpt lat="44.079742194789915" lon="3.378915487096348"><ele>561.5</ele><time>2026-04-02T14:20:23Z</time></trkpt><trkpt lat="44.07975152020197" lon="3.3791007884521784"><ele>561.0</ele><time>2026-04-02T14:20:24Z</time></trkpt><trkpt lat="44.079741900733744" lon="3.379243669051502"><ele>560.5</ele><time>2026-04-02T14:20:25Z</time></trkpt><trkpt lat="44.07968533853512" lon="3.3793739420327924"><ele>560.0</ele><time>2026-04-02T14:20:26Z</time></trkpt><trkpt lat="44.07958428572447" lon="3.3794989750696094"><ele>560.0</ele><time>2026-04-02T14:20:27Z</time></trkpt><trkpt lat="44.0794664207925" lon="3.379637376325953"><ele>560.0</ele><time>2026-04-02T14:20:28Z</time></trkpt><trkpt lat="44.07934460619208" lon="3.379778884882188"><ele>560.0</ele><time>2026-04-02T14:20:29Z</time></trkpt><trkpt lat="44.079229008995476" lon="3.3799226442210726"><ele>563.5</ele><time>2026-04-02T14:20:30Z</time></trkpt><trkpt lat="44.07911138522973" lon="3.380061869350945"><ele>567.0</ele><time>2026-04-02T14:20:31Z</time></trkpt><trkpt lat="44.07899887332461" lon="3.3801749784808184"><ele>570.5</ele><time>2026-04-02T14:20:32Z</time></trkpt><trkpt lat="44.07891532575661" lon="3.3802794059755072"><ele>574.0</ele><time>2026-04-02T14:20:33Z</time></trkpt><trkpt lat="44.07886810437884" lon="3.3804114460316006"><ele>577.0</ele><time>2026-04-02T14:20:34Z</time></trkpt><trkpt lat="44.07887823572642" lon="3.380581111175932"><ele>580.0</ele><time>2026-04-02T14:20:35Z</time></trkpt><trkpt lat="44.0789089963508" lon="3.380800958610628"><ele>583.0</ele><time>2026-04-02T14:20:36Z</time></trkpt><trkpt lat="44.07895345456758" lon="3.3810390253057894"><ele>583.0</ele><time>2026-04-02T14:20:37Z</time></trkpt><trkpt lat="44.07900270402182" lon="3.3812484900661732"><ele>583.0</ele><time>2026-04-02T14:20:38Z</time></trkpt><trkpt lat="44.07900503613065" lon="3.381453540502697"><ele>583.0</ele><time>2026-04-02T14:20:39Z</time></trkpt><trkpt lat="44.079014915403825" lon="3.381671590901988"><ele>584.3333333333334</ele><time>2026-04-02T14:20:40Z</time></trkpt><trkpt lat="44.07901118297098" lon="3.38189505182102"><ele>585.6666666666666</ele><time>2026-04-02T14:20:41Z</time></trkpt><trkpt lat="44.07898621992578" lon="3.3821220622415487"><ele>587.0</ele><time>2026-04-02T14:20:42Z</time></trkpt><trkpt lat="44.07895004386896" lon="3.3823520533395057"><ele>582.6666666666666</ele><time>2026-04-02T14:20:43Z</time></trkpt><trkpt lat="44.078915070047806" lon="3.382594094846116"><ele>578.3333333333334</ele><time>2026-04-02T14:20:44Z</time></trkpt><trkpt lat="44.07891313706838" lon="3.3828384520487345"><ele>574.0</ele><time>2026-04-02T14:20:45Z</time></trkpt><trkpt lat="44.078928694443256" lon="3.3830904887232887"><ele>568.3333333333334</ele><time>2026-04-02T14:20:46Z</time></trkpt><trkpt lat="44.078944011779065" lon="3.383340751194924"><ele>562.6666666666666</ele><time>2026-04-02T14:20:47Z</time></trkpt><trkpt lat="44.07891249447364" lon="3.3835822392537604"><ele>557.0</ele><time>2026-04-02T14:20:48Z</time></trkpt><trkpt lat="44.078858155394364" lon="3.3838047209983544"><ele>557.25</ele><time>2026-04-02T14:20:49Z</time></trkpt><trkpt lat="44.078790753399645" lon="3.3840054266443453"><ele>557.5</ele><time>2026-04-02T14:20:50Z</time></trkpt><trkpt lat="44.07876687593736" lon="3.3841628274906124"><ele>557.75</ele><time>2026-04-02T14:20:51Z</time></trkpt><trkpt lat="44.078748786137446" lon="3.384282458001718"><ele>558.0</ele><time>2026-04-02T14:20:52Z</time></trkpt><trkpt lat="44.078825649905134" lon="3.3844285046967038"><ele>558.0</ele><time>2026-04-02T14:20:53Z</time></trkpt><trkpt lat="44.07889715298214" lon="3.3845713531582553"><ele>558.0</ele><time>2026-04-02T14:20:54Z</time></trkpt><trkpt lat="44.07888365188024" lon="3.3847189503447894"><ele>558.0</ele><time>2026-04-02T14:20:55Z</time></trkpt><trkpt lat="44.07883217232833" lon="3.3848411733671058"><ele>558.0</ele><time>2026-04-02T14:20:56Z</time></trkpt><trkpt lat="44.07874106338709" lon="3.3849226845020666"><ele>558.0</ele><time>2026-04-02T14:20:57Z</time></trkpt><trkpt lat="44.07867793266754" lon="3.3850397054649686"><ele>558.75</ele><time>2026-04-02T14:20:58Z</time></trkpt><trkpt lat="44.078630296964604" lon="3.385163697591594"><ele>559.5</ele><time>2026-04-02T14:20:59Z</time></trkpt><trkpt lat="44.0786273133042" lon="3.385349439950287"><ele>560.25</ele><time>2026-04-02T14:21:00Z</time></trkpt><trkpt lat="44.078657791814756" lon="3.3855690880849822"><ele>561.0</ele><time>2026-04-02T14:21:01Z</time></trkpt><trkpt lat="44.07866105188195" lon="3.385800424758525"><ele>562.0</ele><time>2026-04-02T14:21:02Z</time></trkpt><trkpt lat="44.07864612857193" lon="3.3860187681624825"><ele>563.0</ele><time>2026-04-02T14:21:03Z</time></trkpt><trkpt lat="44.07859633952996" lon="3.386232773617747"><ele>564.0</ele><time>2026-04-02T14:21:04Z</time></trkpt><trkpt lat="44.07854193739163" lon="3.386445075280068"><ele>564.5</ele><time>2026-04-02T14:21:05Z</time></trkpt><trkpt lat="44.0784796004326" lon="3.386653343766523"><ele>565.0</ele><time>2026-04-02T14:21:06Z</time></trkpt><trkpt lat="44.078433910294464" lon="3.386837895925774"><ele>565.5</ele><time>2026-04-02T14:21:07Z</time></trkpt><trkpt lat="44.078409901393066" lon="3.3870222571719113"><ele>566.0</ele><time>2026-04-02T14:21:08Z</time></trkpt><trkpt lat="44.07841076582462" lon="3.3872251059637106"><ele>566.5</ele><time>2026-04-02T14:21:09Z</time></trkpt><trkpt lat="44.07842538046491" lon="3.387434967808769"><ele>567.0</ele><time>2026-04-02T14:21:10Z</time></trkpt><trkpt lat="44.078435400970214" lon="3.387636305760908"><ele>567.5</ele><time>2026-04-02T14:21:11Z</time></trkpt><trkpt lat="44.07843519999351" lon="3.387829117587933"><ele>568.0</ele><time>2026-04-02T14:21:12Z</time></trkpt><trkpt lat="44.07842919198756" lon="3.3880129233481773"><ele>568.6666666666667</ele><time>2026-04-02T14:21:13Z</time></trkpt><trkpt lat="44.07842480232156" lon="3.388178397425672"><ele>569.3333333333334</ele><time>2026-04-02T14:21:14Z</time></trkpt><trkpt lat="44.0784178487824" lon="3.3883093461449483"><ele>570.0</ele><time>2026-04-02T14:21:15Z</time></trkpt><trkpt lat="44.0784099488155" lon="3.3884131257949583"><ele>570.6666666666666</ele><time>2026-04-02T14:21:16Z</time></trkpt><trkpt lat="44.07840683745205" lon="3.388534624349207"><ele>571.3333333333333</ele><time>2026-04-02T14:21:18Z</time></trkpt><trkpt lat="44.078401159364525" lon="3.3886266606022235"><ele>572.0</ele><time>2026-04-02T14:21:20Z</time></trkpt><trkpt lat="44.07837969260559" lon="3.38871208762763"><ele>572.0</ele><time>2026-04-02T14:21:22Z</time></trkpt><trkpt lat="44.07848983712787" lon="3.388806625998044"><ele>572.0</ele><time>2026-04-02T14:21:23Z</time></trkpt><trkpt lat="44.07854430745252" lon="3.3888904821648973"><ele>572.0</ele><time>2026-04-02T14:21:24Z</time></trkpt><trkpt lat="44.07859305986936" lon="3.3889983179603704"><ele>572.0</ele><time>2026-04-02T14:21:25Z</time></trkpt><trkpt lat="44.0786541778253" lon="3.38911346381956"><ele>572.0</ele><time>2026-04-02T14:21:26Z</time></trkpt><trkpt lat="44.078689294061896" lon="3.3892398666871193"><ele>571.4</ele><time>2026-04-02T14:21:27Z</time></trkpt><trkpt lat="44.07873696467037" lon="3.3893562814413714"><ele>570.8000000000001</ele><time>2026-04-02T14:21:28Z</time></trkpt><trkpt lat="44.07876539832627" lon="3.389484650777799"><ele>570.2</ele><time>2026-04-02T14:21:29Z</time></trkpt><trkpt lat="44.078798436612686" lon="3.389609219481719"><ele>569.6</ele><time>2026-04-02T14:21:30Z</time></trkpt><trkpt lat="44.078825671091366" lon="3.3897358415140872"><ele>569.0</ele><time>2026-04-02T14:21:31Z</time></trkpt><trkpt lat="44.07888141183453" lon="3.3898390054808334"><ele>568.0</ele><time>2026-04-02T14:21:32Z</time></trkpt><trkpt lat="44.0789189526069" lon="3.3899541385537932"><ele>567.0</ele><time>2026-04-02T14:21:33Z</time></trkpt><trkpt lat="44.07896714764725" lon="3.3900721126475433"><ele>566.0</ele><time>2026-04-02T14:21:34Z</time></trkpt><trkpt lat="44.079022579788685" lon="3.3901925324758917"><ele>565.0</ele><time>2026-04-02T14:21:35Z</time></trkpt><trkpt lat="44.07908547432656" lon="3.3903120792206294"><ele>564.0</ele><time>2026-04-02T14:21:36Z</time></trkpt><trkpt lat="44.07915401955655" lon="3.39043777006891"><ele>565.8</ele><time>2026-04-02T14:21:37Z</time></trkpt><trkpt lat="44.07921994359874" lon="3.390564620495862"><ele>567.5999999999999</ele><time>2026-04-02T14:21:38Z</time></trkpt><trkpt lat="44.07927817503505" lon="3.390683409185128"><ele>569.4</ele><time>2026-04-02T14:21:39Z</time></trkpt><trkpt lat="44.07934286335734" lon="3.390773720543315"><ele>571.1999999999999</ele><time>2026-04-02T14:21:40Z</time></trkpt><trkpt lat="44.07940789439592" lon="3.3908567996090913"><ele>573.0</ele><time>2026-04-02T14:21:41Z</time></trkpt><trkpt lat="44.079479458783844" lon="3.3909438896960014"><ele>573.0</ele><time>2026-04-02T14:21:42Z</time></trkpt><trkpt lat="44.07955925847394" lon="3.3910425430638167"><ele>573.0</ele><time>2026-04-02T14:21:43Z</time></trkpt><trkpt lat="44.07965223942789" lon="3.391142184236798"><ele>573.0</ele><time>2026-04-02T14:21:44Z</time></trkpt><trkpt lat="44.07975416584762" lon="3.3912382484229013"><ele>573.0</ele><time>2026-04-02T14:21:45Z</time></trkpt><trkpt lat="44.079859119138916" lon="3.3913312092328636"><ele>574.6666666666666</ele><time>2026-04-02T14:21:46Z</time></trkpt><trkpt lat="44.0799825835269" lon="3.3914397019191336"><ele>576.3333333333333</ele><time>2026-04-02T14:21:47Z</time></trkpt><trkpt lat="44.080114593812546" lon="3.3915645919422666"><ele>578.0</ele><time>2026-04-02T14:21:48Z</time></trkpt><trkpt lat="44.080251482884584" lon="3.3917169807996066"><ele>578.0</ele><time>2026-04-02T14:21:49Z</time></trkpt><trkpt lat="44.08038300546619" lon="3.3918999402925087"><ele>578.0</ele><time>2026-04-02T14:21:50Z</time></trkpt><trkpt lat="44.0805127681293" lon="3.392093409769351"><ele>578.0</ele><time>2026-04-02T14:21:51Z</time></trkpt><trkpt lat="44.08064729201543" lon="3.392279717065062"><ele>581.3333333333333</ele><time>2026-04-02T14:21:52Z</time></trkpt><trkpt lat="44.08078753674104" lon="3.392459195073956"><ele>584.6666666666666</ele><time>2026-04-02T14:21:53Z</time></trkpt><trkpt lat="44.08093239319374" lon="3.3926331598696486"><ele>588.0</ele><time>2026-04-02T14:21:54Z</time></trkpt><trkpt lat="44.081079319414364" lon="3.392801506050462"><ele>588.0</ele><time>2026-04-02T14:21:55Z</time></trkpt><trkpt lat="44.08122341960049" lon="3.3929590843518644"><ele>588.0</ele><time>2026-04-02T14:21:56Z</time></trkpt><trkpt lat="44.08137977056146" lon="3.3931032099428884"><ele>588.0</ele><time>2026-04-02T14:21:57Z</time></trkpt><trkpt lat="44.08154971020597" lon="3.393215826364564"><ele>587.3333333333334</ele><time>2026-04-02T14:21:58Z</time></trkpt><trkpt lat="44.08174374523629" lon="3.3932904293874144"><ele>586.6666666666667</ele><time>2026-04-02T14:21:59Z</time></trkpt><trkpt lat="44.08194023419279" lon="3.393371601062007"><ele>586.0</ele><time>2026-04-02T14:22:00Z</time></trkpt><trkpt lat="44.08213822576495" lon="3.393448750517891"><ele>586.0</ele><time>2026-04-02T14:22:01Z</time></trkpt><trkpt lat="44.08234070317248" lon="3.393498561335262"><ele>586.0</ele><time>2026-04-02T14:22:02Z</time></trkpt><trkpt lat="44.082552543650905" lon="3.393575381871464"><ele>586.0</ele><time>2026-04-02T14:22:03Z</time></trkpt><trkpt lat="44.082745900580996" lon="3.3936638069499385"><ele>594.0</ele><time>2026-04-02T14:22:04Z</time></trkpt><trkpt lat="44.082949249810234" lon="3.3937519897396857"><ele>602.0</ele><time>2026-04-02T14:22:05Z</time></trkpt><trkpt lat="44.083154554431395" lon="3.393802901168131"><ele>610.0</ele><time>2026-04-02T14:22:06Z</time></trkpt><trkpt lat="44.08333285283804" lon="3.393835260342123"><ele>615.0</ele><time>2026-04-02T14:22:07Z</time></trkpt><trkpt lat="44.083523257002184" lon="3.3938303609293876"><ele>620.0</ele><time>2026-04-02T14:22:08Z</time></trkpt><trkpt lat="44.08371610081433" lon="3.3937769775634834"><ele>625.0</ele><time>2026-04-02T14:22:09Z</time></trkpt><trkpt lat="44.0839133063404" lon="3.3938035141502754"><ele>625.0</ele><time>2026-04-02T14:22:10Z</time></trkpt><trkpt lat="44.08409458128876" lon="3.393833944685952"><ele>625.0</ele><time>2026-04-02T14:22:11Z</time></trkpt><trkpt lat="44.084284713068456" lon="3.3938833123946273"><ele>625.0</ele><time>2026-04-02T14:22:12Z</time></trkpt><trkpt lat="44.08448177046868" lon="3.3939121885781636"><ele>619.0</ele><time>2026-04-02T14:22:13Z</time></trkpt><trkpt lat="44.0846730422638" lon="3.3939015516722844"><ele>613.0</ele><time>2026-04-02T14:22:14Z</time></trkpt><trkpt lat="44.08485325542961" lon="3.3938978419289456"><ele>607.0</ele><time>2026-04-02T14:22:15Z</time></trkpt><trkpt lat="44.085022819818825" lon="3.3939236335163168"><ele>607.0</ele><time>2026-04-02T14:22:16Z</time></trkpt><trkpt lat="44.08518316239202" lon="3.393981985943211"><ele>607.0</ele><time>2026-04-02T14:22:17Z</time></trkpt><trkpt lat="44.08535875397201" lon="3.3940498340369327"><ele>607.0</ele><time>2026-04-02T14:22:18Z</time></trkpt><trkpt lat="44.08554437597431" lon="3.39414661176857"><ele>607.0</ele><time>2026-04-02T14:22:19Z</time></trkpt><trkpt lat="44.085737223053904" lon="3.3942475427922125"><ele>607.0</ele><time>2026-04-02T14:22:20Z</time></trkpt><trkpt lat="44.085904731604955" lon="3.394297020519221"><ele>607.0</ele><time>2026-04-02T14:22:21Z</time></trkpt><trkpt lat="44.0860652443231" lon="3.3943421848432664"><ele>611.3333333333334</ele><time>2026-04-02T14:22:22Z</time></trkpt><trkpt lat="44.0862447273527" lon="3.394389413358698"><ele>615.6666666666666</ele><time>2026-04-02T14:22:23Z</time></trkpt><trkpt lat="44.08644622768082" lon="3.394404581001366"><ele>620.0</ele><time>2026-04-02T14:22:24Z</time></trkpt><trkpt lat="44.08664004225056" lon="3.394424617031176"><ele>622.75</ele><time>2026-04-02T14:22:25Z</time></trkpt><trkpt lat="44.08680929423546" lon="3.394435114683033"><ele>625.5</ele><time>2026-04-02T14:22:26Z</time></trkpt><trkpt lat="44.086953450546474" lon="3.3944340424798285"><ele>628.25</ele><time>2026-04-02T14:22:27Z</time></trkpt><trkpt lat="44.087079452866135" lon="3.394462703151585"><ele>631.0</ele><time>2026-04-02T14:22:28Z</time></trkpt><trkpt lat="44.087190534257545" lon="3.394535940996736"><ele>631.0</ele><time>2026-04-02T14:22:29Z</time></trkpt><trkpt lat="44.087308597467064" lon="3.3946309576902274"><ele>631.0</ele><time>2026-04-02T14:22:30Z</time></trkpt><trkpt lat="44.0874462433543" lon="3.3947188876611443"><ele>631.0</ele><time>2026-04-02T14:22:31Z</time></trkpt><trkpt lat="44.08757514548177" lon="3.394795480807117"><ele>631.0</ele><time>2026-04-02T14:22:32Z</time></trkpt><trkpt lat="44.087716377729386" lon="3.3947975075962558"><ele>625.0</ele><time>2026-04-02T14:22:33Z</time></trkpt><trkpt lat="44.08785686256724" lon="3.3947447832084965"><ele>619.0</ele><time>2026-04-02T14:22:34Z</time></trkpt><trkpt lat="44.0879729570802" lon="3.394759596256833"><ele>613.0</ele><time>2026-04-02T14:22:35Z</time></trkpt><trkpt lat="44.088045025485464" lon="3.39483863521417"><ele>607.0</ele><time>2026-04-02T14:22:36Z</time></trkpt><trkpt lat="44.088100354972994" lon="3.3949679160825714"><ele>607.0</ele><time>2026-04-02T14:22:37Z</time></trkpt><trkpt lat="44.08819433340802" lon="3.395115639780999"><ele>607.0</ele><time>2026-04-02T14:22:38Z</time></trkpt><trkpt lat="44.08829217901917" lon="3.3952863012345005"><ele>607.0</ele><time>2026-04-02T14:22:39Z</time></trkpt><trkpt lat="44.088431050395926" lon="3.3954317279518227"><ele>610.6666666666667</ele><time>2026-04-02T14:22:40Z</time></trkpt><trkpt lat="44.088542145646294" lon="3.3955929529479123"><ele>614.3333333333334</ele><time>2026-04-02T14:22:41Z</time></trkpt><trkpt lat="44.0886068333395" lon="3.395803940990583"><ele>618.0</ele><time>2026-04-02T14:22:42Z</time></trkpt><trkpt lat="44.08869023241617" lon="3.3960069109747115"><ele>618.0</ele><time>2026-04-02T14:22:43Z</time></trkpt><trkpt lat="44.08880727802767" lon="3.3961879605397947"><ele>618.0</ele><time>2026-04-02T14:22:44Z</time></trkpt><trkpt lat="44.088945732080596" lon="3.3963876171931906"><ele>618.0</ele><time>2026-04-02T14:22:45Z</time></trkpt><trkpt lat="44.089063740774506" lon="3.3965967372586108"><ele>617.6666666666666</ele><time>2026-04-02T14:22:46Z</time></trkpt><trkpt lat="44.08916865123434" lon="3.396810588085833"><ele>617.3333333333333</ele><time>2026-04-02T14:22:47Z</time></trkpt><trkpt lat="44.0892782576474" lon="3.3970091906641056"><ele>617.0</ele><time>2026-04-02T14:22:48Z</time></trkpt><trkpt lat="44.089381822567134" lon="3.3971953513617534"><ele>617.0</ele><time>2026-04-02T14:22:49Z</time></trkpt><trkpt lat="44.08946444277417" lon="3.3974055791624203"><ele>617.0</ele><time>2026-04-02T14:22:50Z</time></trkpt><trkpt lat="44.08953725986413" lon="3.3976065168612215"><ele>617.0</ele><time>2026-04-02T14:22:51Z</time></trkpt><trkpt lat="44.08962702492268" lon="3.397796304556142"><ele>617.0</ele><time>2026-04-02T14:22:52Z</time></trkpt><trkpt lat="44.089717696322644" lon="3.3979861116834247"><ele>617.0</ele><time>2026-04-02T14:22:53Z</time></trkpt><trkpt lat="44.08981709925987" lon="3.398183160393383"><ele>617.0</ele><time>2026-04-02T14:22:54Z</time></trkpt><trkpt lat="44.08992506832859" lon="3.3983899888814495"><ele>623.6666666666666</ele><time>2026-04-02T14:22:55Z</time></trkpt><trkpt lat="44.0900197707965" lon="3.398595238143795"><ele>630.3333333333334</ele><time>2026-04-02T14:22:56Z</time></trkpt><trkpt lat="44.09009872735487" lon="3.3988141684657376"><ele>637.0</ele><time>2026-04-02T14:22:57Z</time></trkpt><trkpt lat="44.0901610844082" lon="3.399047243701361"><ele>637.0</ele><time>2026-04-02T14:22:58Z</time></trkpt><trkpt lat="44.09019892184225" lon="3.399293256628888"><ele>637.0</ele><time>2026-04-02T14:22:59Z</time></trkpt><trkpt lat="44.09024421739125" lon="3.3995470106500925"><ele>637.0</ele><time>2026-04-02T14:23:00Z</time></trkpt><trkpt lat="44.09031590065906" lon="3.399788367698112"><ele>633.0</ele><time>2026-04-02T14:23:01Z</time></trkpt><trkpt lat="44.09038254364946" lon="3.4000370316724573"><ele>629.0</ele><time>2026-04-02T14:23:02Z</time></trkpt><trkpt lat="44.09042634640195" lon="3.400273739269763"><ele>625.0</ele><time>2026-04-02T14:23:03Z</time></trkpt><trkpt lat="44.09046812615358" lon="3.4005005911300654"><ele>625.0</ele><time>2026-04-02T14:23:04Z</time></trkpt><trkpt lat="44.09048528892333" lon="3.4007092777112407"><ele>625.0</ele><time>2026-04-02T14:23:05Z</time></trkpt><trkpt lat="44.090500666507914" lon="3.4009204941419213"><ele>625.0</ele><time>2026-04-02T14:23:06Z</time></trkpt><trkpt lat="44.0905559060857" lon="3.4011330439558614"><ele>622.75</ele><time>2026-04-02T14:23:07Z</time></trkpt><trkpt lat="44.0905963656133" lon="3.4013592883966797"><ele>620.5</ele><time>2026-04-02T14:23:08Z</time></trkpt><trkpt lat="44.09058754359426" lon="3.4015410189558968"><ele>618.25</ele><time>2026-04-02T14:23:09Z</time></trkpt><trkpt lat="44.09057251448721" lon="3.401703777775113"><ele>616.0</ele><time>2026-04-02T14:23:10Z</time></trkpt><trkpt lat="44.090573644903166" lon="3.401873379036942"><ele>616.0</ele><time>2026-04-02T14:23:11Z</time></trkpt><trkpt lat="44.09062236978737" lon="3.402037909879787"><ele>616.0</ele><time>2026-04-02T14:23:12Z</time></trkpt><trkpt lat="44.090708789426245" lon="3.402195666816185"><ele>616.0</ele><time>2026-04-02T14:23:13Z</time></trkpt><trkpt lat="44.090821887054496" lon="3.4023003109859022"><ele>616.0</ele><time>2026-04-02T14:23:14Z</time></trkpt><trkpt lat="44.09094452460989" lon="3.402350752494257"><ele>618.0</ele><time>2026-04-02T14:23:15Z</time></trkpt><trkpt lat="44.09108977140964" lon="3.402367434820596"><ele>620.0</ele><time>2026-04-02T14:23:16Z</time></trkpt><trkpt lat="44.09125700010031" lon="3.402395374882231"><ele>622.0</ele><time>2026-04-02T14:23:17Z</time></trkpt><trkpt lat="44.09141807933137" lon="3.4023840715207188"><ele>622.0</ele><time>2026-04-02T14:23:18Z</time></trkpt><trkpt lat="44.09156814533739" lon="3.4023708029481883"><ele>622.0</ele><time>2026-04-02T14:23:19Z</time></trkpt><trkpt lat="44.091713890909965" lon="3.4023284287190285"><ele>622.0</ele><time>2026-04-02T14:23:20Z</time></trkpt><trkpt lat="44.09187225093056" lon="3.4023220715016342"><ele>630.75</ele><time>2026-04-02T14:23:21Z</time></trkpt><trkpt lat="44.09202829833309" lon="3.4023011951952893"><ele>639.5</ele><time>2026-04-02T14:23:22Z</time></trkpt><trkpt lat="44.09217281255436" lon="3.402273560369679"><ele>648.25</ele><time>2026-04-02T14:23:23Z</time></trkpt><trkpt lat="44.09229713126897" lon="3.4022317398335686"><ele>657.0</ele><time>2026-04-02T14:23:24Z</time></trkpt><trkpt lat="44.092411730347266" lon="3.402228832958488"><ele>662.0</ele><time>2026-04-02T14:23:25Z</time></trkpt><trkpt lat="44.09252746537775" lon="3.4022463405251484"><ele>667.0</ele><time>2026-04-02T14:23:26Z</time></trkpt><trkpt lat="44.09264548669668" lon="3.4022743182948236"><ele>672.0</ele><time>2026-04-02T14:23:27Z</time></trkpt><trkpt lat="44.09277768616288" lon="3.4023158769621755"><ele>677.0</ele><time>2026-04-02T14:23:28Z</time></trkpt><trkpt lat="44.092934004935564" lon="3.4023775766126154"><ele>677.0</ele><time>2026-04-02T14:23:29Z</time></trkpt><trkpt lat="44.093083953151194" lon="3.4024324734006823"><ele>677.0</ele><time>2026-04-02T14:23:30Z</time></trkpt><trkpt lat="44.09322352608489" lon="3.4024803027281942"><ele>677.0</ele><time>2026-04-02T14:23:31Z</time></trkpt><trkpt lat="44.093351294724535" lon="3.402522265467892"><ele>677.0</ele><time>2026-04-02T14:23:32Z</time></trkpt><trkpt lat="44.09346585559803" lon="3.40260067232493"><ele>675.6666666666666</ele><time>2026-04-02T14:23:33Z</time></trkpt><trkpt lat="44.0935872717218" lon="3.4026997041902414"><ele>674.3333333333334</ele><time>2026-04-02T14:23:34Z</time></trkpt><trkpt lat="44.09371400427297" lon="3.4028125299203915"><ele>673.0</ele><time>2026-04-02T14:23:35Z</time></trkpt><trkpt lat="44.09385295373664" lon="3.402928194181348"><ele>669.3333333333334</ele><time>2026-04-02T14:23:36Z</time></trkpt><trkpt lat="44.09399574608386" lon="3.40304259976317"><ele>665.6666666666666</ele><time>2026-04-02T14:23:37Z</time></trkpt><trkpt lat="44.09413814979055" lon="3.4031569727294584"><ele>662.0</ele><time>2026-04-02T14:23:38Z</time></trkpt><trkpt lat="44.094277322510145" lon="3.4032756695240445"><ele>662.0</ele><time>2026-04-02T14:23:39Z</time></trkpt><trkpt lat="44.09441488476537" lon="3.4034068431227635"><ele>662.0</ele><time>2026-04-02T14:23:40Z</time></trkpt><trkpt lat="44.094552703157994" lon="3.4035280584941776"><ele>662.0</ele><time>2026-04-02T14:23:41Z</time></trkpt><trkpt lat="44.09467585551618" lon="3.4035987840588855"><ele>662.0</ele><time>2026-04-02T14:23:42Z</time></trkpt><trkpt lat="44.09478467878689" lon="3.4036478254297045"><ele>662.0</ele><time>2026-04-02T14:23:43Z</time></trkpt><trkpt lat="44.094873856463444" lon="3.4036634325884747"><ele>662.0</ele><time>2026-04-02T14:23:44Z</time></trkpt><trkpt lat="44.09479852784745" lon="3.403637020958438"><ele>662.0</ele><time>2026-04-02T14:26:15Z</time></trkpt><trkpt lat="44.09489636911016" lon="3.4036869229100555"><ele>662.0</ele><time>2026-04-02T14:26:39Z</time></trkpt><trkpt lat="44.09499369390942" lon="3.4036735775552374"><ele>668.5</ele><time>2026-04-02T14:43:15Z</time></trkpt><trkpt lat="44.09506251594746" lon="3.403645833362987"><ele>675.0</ele><time>2026-04-02T14:43:16Z</time></trkpt><trkpt lat="44.09514875225074" lon="3.4036159973097164"><ele>681.5</ele><time>2026-04-02T14:43:17Z</time></trkpt><trkpt lat="44.095240182505705" lon="3.4036044833559993"><ele>688.0</ele><time>2026-04-02T14:43:18Z</time></trkpt><trkpt lat="44.095334913134046" lon="3.4036001226748764"><ele>694.5</ele><time>2026-04-02T14:43:19Z</time></trkpt><trkpt lat="44.095430932054356" lon="3.403582682591553"><ele>701.0</ele><time>2026-04-02T14:43:20Z</time></trkpt><trkpt lat="44.09551686988483" lon="3.403533512191156"><ele>701.0</ele><time>2026-04-02T14:43:21Z</time></trkpt><trkpt lat="44.09560212653982" lon="3.403450222669864"><ele>701.0</ele><time>2026-04-02T14:43:22Z</time></trkpt><trkpt lat="44.0956964054722" lon="3.403347430929698"><ele>701.0</ele><time>2026-04-02T14:43:23Z</time></trkpt><trkpt lat="44.09580139308817" lon="3.403244075892593"><ele>701.0</ele><time>2026-04-02T14:43:24Z</time></trkpt><trkpt lat="44.09589577625418" lon="3.4031359691042273"><ele>702.75</ele><time>2026-04-02T14:43:25Z</time></trkpt><trkpt lat="44.09596334449753" lon="3.402989362467333"><ele>704.5</ele><time>2026-04-02T14:43:26Z</time></trkpt><trkpt lat="44.09601416998733" lon="3.4028222832925294"><ele>706.25</ele><time>2026-04-02T14:43:27Z</time></trkpt><trkpt lat="44.096074672780304" lon="3.4026589351298577"><ele>708.0</ele><time>2026-04-02T14:43:28Z</time></trkpt><trkpt lat="44.096112628287955" lon="3.4024742050176116"><ele>708.0</ele><time>2026-04-02T14:43:29Z</time></trkpt><trkpt lat="44.09615408887922" lon="3.4022876836569953"><ele>708.0</ele><time>2026-04-02T14:43:30Z</time></trkpt><trkpt lat="44.09620319456312" lon="3.402102688493289"><ele>708.0</ele><time>2026-04-02T14:43:31Z</time></trkpt><trkpt lat="44.09624932397868" lon="3.4019183154456805"><ele>708.0</ele><time>2026-04-02T14:43:32Z</time></trkpt><trkpt lat="44.09629942904403" lon="3.4017304627429135"><ele>706.25</ele><time>2026-04-02T14:43:33Z</time></trkpt><trkpt lat="44.09637809389511" lon="3.401555824649248"><ele>704.5</ele><time>2026-04-02T14:43:34Z</time></trkpt><trkpt lat="44.09646914737894" lon="3.4013927800022863"><ele>702.75</ele><time>2026-04-02T14:43:35Z</time></trkpt><trkpt lat="44.0965806303757" lon="3.4012514507334037"><ele>701.0</ele><time>2026-04-02T14:43:36Z</time></trkpt><trkpt lat="44.09669265557439" lon="3.401105504241654"><ele>701.0</ele><time>2026-04-02T14:43:37Z</time></trkpt><trkpt lat="44.096791814645904" lon="3.400938549112441"><ele>701.0</ele><time>2026-04-02T14:43:38Z</time></trkpt><trkpt lat="44.096887680167065" lon="3.400741164108837"><ele>701.0</ele><time>2026-04-02T14:43:39Z</time></trkpt><trkpt lat="44.09697562666896" lon="3.4005245180815025"><ele>714.0</ele><time>2026-04-02T14:43:40Z</time></trkpt><trkpt lat="44.09705395740254" lon="3.4003188113671245"><ele>727.0</ele><time>2026-04-02T14:43:41Z</time></trkpt><trkpt lat="44.09713354441554" lon="3.400119426769483"><ele>740.0</ele><time>2026-04-02T14:43:42Z</time></trkpt><trkpt lat="44.09724014787284" lon="3.399978657837675"><ele>740.0</ele><time>2026-04-02T14:43:43Z</time></trkpt><trkpt lat="44.097344476611156" lon="3.399827133745586"><ele>740.0</ele><time>2026-04-02T14:43:44Z</time></trkpt><trkpt lat="44.097452392334326" lon="3.399680877516057"><ele>740.0</ele><time>2026-04-02T14:43:45Z</time></trkpt><trkpt lat="44.097574857707244" lon="3.399570017651978"><ele>740.0</ele><time>2026-04-02T14:43:46Z</time></trkpt><trkpt lat="44.09770817985105" lon="3.399499807541168"><ele>739.25</ele><time>2026-04-02T14:43:47Z</time></trkpt><trkpt lat="44.09784235383941" lon="3.3994562272490723"><ele>738.5</ele><time>2026-04-02T14:43:48Z</time></trkpt><trkpt lat="44.09799005549163" lon="3.399427317109073"><ele>737.75</ele><time>2026-04-02T14:43:49Z</time></trkpt><trkpt lat="44.09814854155458" lon="3.3994142520089294"><ele>737.0</ele><time>2026-04-02T14:43:50Z</time></trkpt><trkpt lat="44.098300938139836" lon="3.3994075525772134"><ele>733.0</ele><time>2026-04-02T14:43:51Z</time></trkpt><trkpt lat="44.098442361899174" lon="3.399413632449799"><ele>729.0</ele><time>2026-04-02T14:43:52Z</time></trkpt><trkpt lat="44.09857121367475" lon="3.399430996589609"><ele>725.0</ele><time>2026-04-02T14:43:53Z</time></trkpt><trkpt lat="44.09870512822083" lon="3.3994557025192784"><ele>721.0</ele><time>2026-04-02T14:43:54Z</time></trkpt><trkpt lat="44.09884706952098" lon="3.3994594718417512"><ele>721.0</ele><time>2026-04-02T14:43:55Z</time></trkpt><trkpt lat="44.09900403035354" lon="3.3995214520117636"><ele>721.0</ele><time>2026-04-02T14:43:56Z</time></trkpt><trkpt lat="44.099146081555" lon="3.3996470610015894"><ele>721.0</ele><time>2026-04-02T14:43:57Z</time></trkpt><trkpt lat="44.09929753906681" lon="3.3996987471959534"><ele>715.5</ele><time>2026-04-02T14:43:58Z</time></trkpt><trkpt lat="44.099434562632986" lon="3.399751125020883"><ele>710.0</ele><time>2026-04-02T14:43:59Z</time></trkpt><trkpt lat="44.09955891444435" lon="3.3998400748790325"><ele>704.5</ele><time>2026-04-02T14:44:00Z</time></trkpt><trkpt lat="44.099675107524114" lon="3.399934831765562"><ele>699.0</ele><time>2026-04-02T14:44:01Z</time></trkpt><trkpt lat="44.099809378451226" lon="3.4000639449202517"><ele>702.0</ele><time>2026-04-02T14:44:02Z</time></trkpt><trkpt lat="44.09994589056684" lon="3.4001945953670534"><ele>705.0</ele><time>2026-04-02T14:44:03Z</time></trkpt><trkpt lat="44.100067274321525" lon="3.4003183504738854"><ele>708.0</ele><time>2026-04-02T14:44:04Z</time></trkpt><trkpt lat="44.10018892340266" lon="3.4004204451388524"><ele>706.0</ele><time>2026-04-02T14:44:05Z</time></trkpt><trkpt lat="44.10028810211554" lon="3.400533456601954"><ele>704.0</ele><time>2026-04-02T14:44:06Z</time></trkpt><trkpt lat="44.10039266598973" lon="3.4006381730429047"><ele>702.0</ele><time>2026-04-02T14:44:07Z</time></trkpt><trkpt lat="44.1005066803308" lon="3.4007299974546106"><ele>700.0</ele><time>2026-04-02T14:44:08Z</time></trkpt><trkpt lat="44.10064426312593" lon="3.400827104284403"><ele>700.75</ele><time>2026-04-02T14:44:09Z</time></trkpt><trkpt lat="44.10077198686413" lon="3.400926903699731"><ele>701.5</ele><time>2026-04-02T14:44:10Z</time></trkpt><trkpt lat="44.10089098510713" lon="3.4009805852975132"><ele>702.25</ele><time>2026-04-02T14:44:11Z</time></trkpt><trkpt lat="44.10100358411673" lon="3.4010057308122743"><ele>703.0</ele><time>2026-04-02T14:44:12Z</time></trkpt><trkpt lat="44.10112082303969" lon="3.400971575769131"><ele>703.0</ele><time>2026-04-02T14:44:13Z</time></trkpt><trkpt lat="44.10125846150633" lon="3.4008841768583906"><ele>703.0</ele><time>2026-04-02T14:44:14Z</time></trkpt><trkpt lat="44.10141230527597" lon="3.4008630275980924"><ele>703.0</ele><time>2026-04-02T14:44:15Z</time></trkpt><trkpt lat="44.10155944650442" lon="3.400840576309894"><ele>705.3333333333334</ele><time>2026-04-02T14:44:16Z</time></trkpt><trkpt lat="44.10171481818114" lon="3.4007902515759914"><ele>707.6666666666666</ele><time>2026-04-02T14:44:17Z</time></trkpt><trkpt lat="44.101897375695394" lon="3.400760302374202"><ele>710.0</ele><time>2026-04-02T14:44:18Z</time></trkpt><trkpt lat="44.10209056118658" lon="3.4007287361103002"><ele>710.0</ele><time>2026-04-02T14:44:19Z</time></trkpt><trkpt lat="44.10227231187314" lon="3.400737648489217"><ele>710.0</ele><time>2026-04-02T14:44:20Z</time></trkpt><trkpt lat="44.10243111404879" lon="3.4007441033486"><ele>710.0</ele><time>2026-04-02T14:44:21Z</time></trkpt><trkpt lat="44.1025799095893" lon="3.400769095962256"><ele>709.0</ele><time>2026-04-02T14:44:22Z</time></trkpt><trkpt lat="44.10273115157847" lon="3.4007900214125586"><ele>708.0</ele><time>2026-04-02T14:44:23Z</time></trkpt><trkpt lat="44.10287252266539" lon="3.4007793160281667"><ele>707.0</ele><time>2026-04-02T14:44:24Z</time></trkpt><trkpt lat="44.102995202002056" lon="3.4007996757158803"><ele>706.0</ele><time>2026-04-02T14:44:25Z</time></trkpt><trkpt lat="44.10310666897541" lon="3.4008013604069154"><ele>706.0</ele><time>2026-04-02T14:44:26Z</time></trkpt><trkpt lat="44.103206732345384" lon="3.4007979354943614"><ele>706.0</ele><time>2026-04-02T14:44:27Z</time></trkpt><trkpt lat="44.103289630411695" lon="3.4008012685683258"><ele>706.0</ele><time>2026-04-02T14:44:28Z</time></trkpt><trkpt lat="44.103357889409516" lon="3.400796198634374"><ele>706.0</ele><time>2026-04-02T14:44:29Z</time></trkpt><trkpt lat="44.103424261278455" lon="3.400794763783952"><ele>706.0</ele><time>2026-04-02T14:44:30Z</time></trkpt><trkpt lat="44.103528207080565" lon="3.4007770856365727"><ele>706.0</ele><time>2026-04-02T14:44:32Z</time></trkpt><trkpt lat="44.10354016829499" lon="3.4009120393389645"><ele>706.4</ele><time>2026-04-02T14:44:35Z</time></trkpt><trkpt lat="44.10356653904896" lon="3.4010058542691466"><ele>706.8</ele><time>2026-04-02T14:44:38Z</time></trkpt><trkpt lat="44.103571792432625" lon="3.4011329462067383"><ele>707.1999999999999</ele><time>2026-04-02T14:45:52Z</time></trkpt><trkpt lat="44.10363598147879" lon="3.401262162685193"><ele>707.5999999999999</ele><time>2026-04-02T14:45:54Z</time></trkpt><trkpt lat="44.1037268220568" lon="3.401197891685347"><ele>708.0</ele><time>2026-04-02T14:45:55Z</time></trkpt><trkpt lat="44.103800273658116" lon="3.401183906270944"><ele>708.0</ele><time>2026-04-02T14:45:56Z</time></trkpt><trkpt lat="44.10388338510226" lon="3.401163874236509"><ele>708.0</ele><time>2026-04-02T14:45:57Z</time></trkpt><trkpt lat="44.10395717811365" lon="3.401141414095795"><ele>708.0</ele><time>2026-04-02T14:45:58Z</time></trkpt><trkpt lat="44.104040727823005" lon="3.401114281317316"><ele>708.0</ele><time>2026-04-02T14:45:59Z</time></trkpt><trkpt lat="44.10413553479663" lon="3.4010829626742924"><ele>708.0</ele><time>2026-04-02T14:46:00Z</time></trkpt><trkpt lat="44.10422794230515" lon="3.4010521198514416"><ele>708.0</ele><time>2026-04-02T14:46:01Z</time></trkpt><trkpt lat="44.10432366927247" lon="3.4010383569899836"><ele>707.8333333333334</ele><time>2026-04-02T14:46:02Z</time></trkpt><trkpt lat="44.104407757391755" lon="3.4009778775385593"><ele>707.6666666666666</ele><time>2026-04-02T14:46:03Z</time></trkpt><trkpt lat="44.104485842523964" lon="3.400933508117721"><ele>707.5</ele><time>2026-04-02T14:46:04Z</time></trkpt><trkpt lat="44.104581466516876" lon="3.4009178564465103"><ele>707.3333333333333</ele><time>2026-04-02T14:46:05Z</time></trkpt><trkpt lat="44.104665852769294" lon="3.400905650020987"><ele>707.1666666666666</ele><time>2026-04-02T14:46:06Z</time></trkpt><trkpt lat="44.10473332151612" lon="3.4008954353148386"><ele>707.0</ele><time>2026-04-02T14:46:07Z</time></trkpt><trkpt lat="44.10477217836646" lon="3.4009911884498263"><ele>707.0</ele><time>2026-04-02T14:46:10Z</time></trkpt><trkpt lat="44.104640514316834" lon="3.4010662162665364"><ele>707.0</ele><time>2026-04-02T14:46:13Z</time></trkpt><trkpt lat="44.10455338407913" lon="3.4010887578689144"><ele>707.0</ele><time>2026-04-02T14:46:14Z</time></trkpt><trkpt lat="44.10447756378165" lon="3.401125173074099"><ele>707.0</ele><time>2026-04-02T14:46:15Z</time></trkpt><trkpt lat="44.10440207517729" lon="3.4011792482379013"><ele>707.0</ele><time>2026-04-02T14:46:16Z</time></trkpt><trkpt lat="44.104327689589624" lon="3.401224773760643"><ele>707.0</ele><time>2026-04-02T14:46:17Z</time></trkpt><trkpt lat="44.10425996704331" lon="3.4012698418190466"><ele>707.0</ele><time>2026-04-02T14:46:18Z</time></trkpt><trkpt lat="44.10420273275326" lon="3.4013221768488027"><ele>707.0</ele><time>2026-04-02T14:46:19Z</time></trkpt><trkpt lat="44.104117565912" lon="3.4013977246781018"><ele>707.0</ele><time>2026-04-02T14:46:21Z</time></trkpt><trkpt lat="44.10421796009229" lon="3.4014690967101897"><ele>707.0</ele><time>2026-04-02T14:46:25Z</time></trkpt><trkpt lat="44.104284980689776" lon="3.401407856373728"><ele>707.0</ele><time>2026-04-02T14:46:26Z</time></trkpt><trkpt lat="44.10436509814468" lon="3.401419003613052"><ele>710.2857142857143</ele><time>2026-04-02T14:46:28Z</time></trkpt><trkpt lat="44.104427795000866" lon="3.401407611222098"><ele>713.5714285714286</ele><time>2026-04-02T14:46:31Z</time></trkpt><trkpt lat="44.10452512859223" lon="3.4013801459101294"><ele>716.8571428571429</ele><time>2026-04-02T14:46:33Z</time></trkpt><trkpt lat="44.10459273107151" lon="3.401409978142405"><ele>720.1428571428571</ele><time>2026-04-02T14:46:34Z</time></trkpt><trkpt lat="44.104656436657315" lon="3.4014473042504925"><ele>723.4285714285714</ele><time>2026-04-02T14:46:35Z</time></trkpt><trkpt lat="44.10468598681587" lon="3.401540340008115"><ele>726.7142857142858</ele><time>2026-04-02T14:46:37Z</time></trkpt><trkpt lat="44.104619647370434" lon="3.401544464759182"><ele>730.0</ele><time>2026-04-02T14:46:38Z</time></trkpt><trkpt lat="44.10456546113235" lon="3.401494059033762"><ele>730.0</ele><time>2026-04-02T14:46:40Z</time></trkpt><trkpt lat="44.1044264652152" lon="3.4014959173193446"><ele>730.0</ele><time>2026-04-02T14:46:42Z</time></trkpt><trkpt lat="44.10435336524022" lon="3.4015096967581497"><ele>730.0</ele><time>2026-04-02T14:46:43Z</time></trkpt><trkpt lat="44.10427950634917" lon="3.401570846643066"><ele>730.0</ele><time>2026-04-02T14:46:44Z</time></trkpt><trkpt lat="44.104190303040966" lon="3.4015781867184014"><ele>730.0</ele><time>2026-04-02T14:46:45Z</time></trkpt><trkpt lat="44.104106434703695" lon="3.4015999888791533"><ele>730.2</ele><time>2026-04-02T14:46:46Z</time></trkpt><trkpt lat="44.10400630877748" lon="3.401626687880361"><ele>730.4</ele><time>2026-04-02T14:46:47Z</time></trkpt><trkpt lat="44.103905522369004" lon="3.4016462481174683"><ele>730.5999999999999</ele><time>2026-04-02T14:46:48Z</time></trkpt><trkpt lat="44.10380041438038" lon="3.401679865901479"><ele>730.8</ele><time>2026-04-02T14:46:49Z</time></trkpt><trkpt lat="44.10372203153554" lon="3.401750341986266"><ele>731.0</ele><time>2026-04-02T14:46:50Z</time></trkpt><trkpt lat="44.103637398490655" lon="3.401791368680524"><ele>731.0</ele><time>2026-04-02T14:46:51Z</time></trkpt><trkpt lat="44.10355649964782" lon="3.4018220526178133"><ele>731.0</ele><time>2026-04-02T14:46:52Z</time></trkpt><trkpt lat="44.103476809829935" lon="3.401858050052616"><ele>731.0</ele><time>2026-04-02T14:46:53Z</time></trkpt><trkpt lat="44.10337712903088" lon="3.4018745466802383"><ele>731.0</ele><time>2026-04-02T14:46:54Z</time></trkpt><trkpt lat="44.10327909448034" lon="3.4018933445306376"><ele>731.0</ele><time>2026-04-02T14:46:55Z</time></trkpt><trkpt lat="44.10318527822678" lon="3.401866388320267"><ele>730.4</ele><time>2026-04-02T14:46:56Z</time></trkpt><trkpt lat="44.10309962865813" lon="3.4018726162404795"><ele>729.8</ele><time>2026-04-02T14:46:57Z</time></trkpt><trkpt lat="44.10301886837997" lon="3.4018332919547376"><ele>729.1999999999999</ele><time>2026-04-02T14:46:58Z</time></trkpt><trkpt lat="44.102930381976016" lon="3.401845590515697"><ele>728.5999999999999</ele><time>2026-04-02T14:46:59Z</time></trkpt><trkpt lat="44.102837190411925" lon="3.401890685173679"><ele>728.0</ele><time>2026-04-02T14:47:00Z</time></trkpt><trkpt lat="44.102741016621124" lon="3.401889430533562"><ele>728.0</ele><time>2026-04-02T14:47:01Z</time></trkpt><trkpt lat="44.10263598269643" lon="3.4019084162959135"><ele>728.0</ele><time>2026-04-02T14:47:02Z</time></trkpt><trkpt lat="44.10252178717667" lon="3.4019297430041604"><ele>728.0</ele><time>2026-04-02T14:47:03Z</time></trkpt><trkpt lat="44.102421235852475" lon="3.401958343595078"><ele>728.0</ele><time>2026-04-02T14:47:04Z</time></trkpt><trkpt lat="44.10231849371368" lon="3.4020316726918938"><ele>728.0</ele><time>2026-04-02T14:47:05Z</time></trkpt><trkpt lat="44.10221774761461" lon="3.402069600578301"><ele>726.5999999999999</ele><time>2026-04-02T14:47:06Z</time></trkpt><trkpt lat="44.102105683289814" lon="3.4021073458571087"><ele>725.1999999999999</ele><time>2026-04-02T14:47:07Z</time></trkpt><trkpt lat="44.102001423448584" lon="3.402135714649215"><ele>723.8</ele><time>2026-04-02T14:47:08Z</time></trkpt><trkpt lat="44.10191798092001" lon="3.402166038030867"><ele>722.4</ele><time>2026-04-02T14:47:09Z</time></trkpt><trkpt lat="44.101832060683634" lon="3.402209013508353"><ele>721.0</ele><time>2026-04-02T14:47:10Z</time></trkpt><trkpt lat="44.101751426167596" lon="3.402294955526761"><ele>728.4</ele><time>2026-04-02T14:47:11Z</time></trkpt><trkpt lat="44.10166626632426" lon="3.402365060616207"><ele>735.8</ele><time>2026-04-02T14:47:12Z</time></trkpt><trkpt lat="44.10156531688226" lon="3.4024142799653823"><ele>743.1999999999999</ele><time>2026-04-02T14:47:14Z</time></trkpt><trkpt lat="44.10148825711475" lon="3.4024526645313093"><ele>750.5999999999999</ele><time>2026-04-02T14:47:16Z</time></trkpt><trkpt lat="44.10139325937845" lon="3.4024880899509764"><ele>758.0</ele><time>2026-04-02T14:47:22Z</time></trkpt><trkpt lat="44.10130460695772" lon="3.402500916090896"><ele>758.0</ele><time>2026-04-02T14:47:24Z</time></trkpt><trkpt lat="44.10124021718557" lon="3.4025098977590122"><ele>758.0</ele><time>2026-04-02T14:47:25Z</time></trkpt><trkpt lat="44.101152737809166" lon="3.402518899395133"><ele>758.0</ele><time>2026-04-02T14:47:26Z</time></trkpt><trkpt lat="44.101084445808226" lon="3.4025230877886123"><ele>758.0</ele><time>2026-04-02T14:47:27Z</time></trkpt><trkpt lat="44.10101349507071" lon="3.4025387116582144"><ele>758.0</ele><time>2026-04-02T14:47:28Z</time></trkpt><trkpt lat="44.10094745343753" lon="3.4025119464684543"><ele>758.0</ele><time>2026-04-02T14:47:29Z</time></trkpt><trkpt lat="44.10085016536849" lon="3.4025315501063833"><ele>758.0</ele><time>2026-04-02T14:47:31Z</time></trkpt><trkpt lat="44.100785042767015" lon="3.4025493036920382"><ele>758.0</ele><time>2026-04-02T14:47:33Z</time></trkpt><trkpt lat="44.10084672558849" lon="3.402507860569895"><ele>758.0</ele><time>2026-04-02T14:48:03Z</time></trkpt><trkpt lat="44.100987366350324" lon="3.402683386688334"><ele>758.0</ele><time>2026-04-02T14:48:05Z</time></trkpt><trkpt lat="44.10107484469008" lon="3.4026855520476604"><ele>758.0</ele><time>2026-04-02T14:48:06Z</time></trkpt><trkpt lat="44.10115858840293" lon="3.4026906851720318"><ele>758.0</ele><time>2026-04-02T14:48:07Z</time></trkpt><trkpt lat="44.10124189521682" lon="3.402711054491344"><ele>758.0</ele><time>2026-04-02T14:48:08Z</time></trkpt><trkpt lat="44.101326900770424" lon="3.4027433484254184"><ele>758.0</ele><time>2026-04-02T14:48:09Z</time></trkpt><trkpt lat="44.101454098341975" lon="3.402779544653068"><ele>758.0</ele><time>2026-04-02T14:48:10Z</time></trkpt><trkpt lat="44.1016025657985" lon="3.4027851085861234"><ele>758.0</ele><time>2026-04-02T14:48:11Z</time></trkpt><trkpt lat="44.10173450912175" lon="3.402766433845423"><ele>758.0</ele><time>2026-04-02T14:48:12Z</time></trkpt><trkpt lat="44.10186031750146" lon="3.4027338986044864"><ele>758.0</ele><time>2026-04-02T14:48:13Z</time></trkpt><trkpt lat="44.101950162769" lon="3.4027084924885846"><ele>758.0</ele><time>2026-04-02T14:48:14Z</time></trkpt><trkpt lat="44.10204913248144" lon="3.4026805061004097"><ele>758.0</ele><time>2026-04-02T14:48:15Z</time></trkpt><trkpt lat="44.10214731935893" lon="3.402657342710344"><ele>758.0</ele><time>2026-04-02T14:48:16Z</time></trkpt><trkpt lat="44.10225510998567" lon="3.4026294262243533"><ele>758.0</ele><time>2026-04-02T14:48:17Z</time></trkpt><trkpt lat="44.102347640942604" lon="3.402609151372308"><ele>758.0</ele><time>2026-04-02T14:48:18Z</time></trkpt><trkpt lat="44.10243326316885" lon="3.4025947953240814"><ele>758.0</ele><time>2026-04-02T14:48:19Z</time></trkpt><trkpt lat="44.10253512725097" lon="3.4025807667114307"><ele>760.25</ele><time>2026-04-02T14:48:20Z</time></trkpt><trkpt lat="44.10267702833074" lon="3.402585646115006"><ele>762.5</ele><time>2026-04-02T14:48:22Z</time></trkpt><trkpt lat="44.10277849427294" lon="3.4025913233270964"><ele>764.75</ele><time>2026-04-02T14:48:23Z</time></trkpt><trkpt lat="44.10289334988895" lon="3.40259866617091"><ele>767.0</ele><time>2026-04-02T14:48:24Z</time></trkpt><trkpt lat="44.10299653980778" lon="3.4026052632153907"><ele>767.0</ele><time>2026-04-02T14:48:25Z</time></trkpt><trkpt lat="44.1030725282298" lon="3.4026101212456488"><ele>767.0</ele><time>2026-04-02T14:48:26Z</time></trkpt><trkpt lat="44.103156942519774" lon="3.402615676776635"><ele>767.0</ele><time>2026-04-02T14:48:27Z</time></trkpt><trkpt lat="44.10324593105649" lon="3.4026219927104715"><ele>767.0</ele><time>2026-04-02T14:48:28Z</time></trkpt><trkpt lat="44.10333798662068" lon="3.4026289107165244"><ele>767.0</ele><time>2026-04-02T14:48:29Z</time></trkpt><trkpt lat="44.103456843497874" lon="3.402636870628729"><ele>769.75</ele><time>2026-04-02T14:48:30Z</time></trkpt><trkpt lat="44.10358751060879" lon="3.4026437332513417"><ele>772.5</ele><time>2026-04-02T14:48:31Z</time></trkpt><trkpt lat="44.10370302488937" lon="3.4026039752087223"><ele>775.25</ele><time>2026-04-02T14:48:32Z</time></trkpt><trkpt lat="44.10381574588316" lon="3.4025609729563953"><ele>778.0</ele><time>2026-04-02T14:48:33Z</time></trkpt><trkpt lat="44.10391978724815" lon="3.4025153993332804"><ele>778.0</ele><time>2026-04-02T14:48:34Z</time></trkpt><trkpt lat="44.10407885058646" lon="3.402466604130345"><ele>778.0</ele><time>2026-04-02T14:48:35Z</time></trkpt><trkpt lat="44.104177210910414" lon="3.4024088704061306"><ele>778.0</ele><time>2026-04-02T14:48:36Z</time></trkpt><trkpt lat="44.10427098369403" lon="3.402339063143479"><ele>778.0</ele><time>2026-04-02T14:48:37Z</time></trkpt><trkpt lat="44.104354871497584" lon="3.402256645423462"><ele>707.0</ele><time>2026-04-02T14:48:38Z</time></trkpt><trkpt lat="44.10445361508967" lon="3.401111098938592"><ele>707.0</ele><time>2026-04-02T14:48:39Z</time></trkpt><trkpt lat="44.104386968581345" lon="3.4011885974505534"><ele>707.0</ele><time>2026-04-02T14:48:50Z</time></trkpt><trkpt lat="44.10431340497583" lon="3.401217069260693"><ele>707.0</ele><time>2026-04-02T14:48:51Z</time></trkpt><trkpt lat="44.10419241595111" lon="3.4012991523494756"><ele>707.0</ele><time>2026-04-02T14:48:53Z</time></trkpt><trkpt lat="44.104143551439165" lon="3.401355254902522"><ele>707.0</ele><time>2026-04-02T14:48:54Z</time></trkpt><trkpt lat="44.104102704013705" lon="3.401432547204511"><ele>707.0</ele><time>2026-04-02T14:48:56Z</time></trkpt><trkpt lat="44.10413510254201" lon="3.4013240509677956"><ele>707.0</ele><time>2026-04-02T14:48:58Z</time></trkpt><trkpt lat="44.10421277672404" lon="3.4014371303582966"><ele>707.0</ele><time>2026-04-02T14:48:59Z</time></trkpt><trkpt lat="44.104328293316875" lon="3.4014256913017835"><ele>707.0</ele><time>2026-04-02T14:49:00Z</time></trkpt><trkpt lat="44.10436012485826" lon="3.4010080010777437"><ele>707.0</ele><time>2026-04-02T14:49:01Z</time></trkpt><trkpt lat="44.10446540571654" lon="3.400981233177413"><ele>707.0</ele><time>2026-04-02T14:49:02Z</time></trkpt><trkpt lat="44.104564168062616" lon="3.400956899553896"><ele>707.0</ele><time>2026-04-02T14:49:03Z</time></trkpt><trkpt lat="44.1046613171784" lon="3.4009334355831635"><ele>707.0</ele><time>2026-04-02T14:49:04Z</time></trkpt><trkpt lat="44.104757968300504" lon="3.400917984684391"><ele>707.0</ele><time>2026-04-02T14:49:06Z</time></trkpt><trkpt lat="44.104707006003174" lon="3.4009969866214096"><ele>707.0</ele><time>2026-04-02T14:49:11Z</time></trkpt><trkpt lat="44.10459396186231" lon="3.4010939992746096"><ele>707.0</ele><time>2026-04-02T14:49:12Z</time></trkpt><trkpt lat="44.10449878673477" lon="3.4011283055521786"><ele>707.0</ele><time>2026-04-02T14:49:13Z</time></trkpt><trkpt lat="44.10440776992664" lon="3.401158061054505"><ele>707.0</ele><time>2026-04-02T14:49:14Z</time></trkpt><trkpt lat="44.104313114430504" lon="3.40119434869125"><ele>707.0</ele><time>2026-04-02T14:49:15Z</time></trkpt><trkpt lat="44.104217723713106" lon="3.4012556680248336"><ele>707.25</ele><time>2026-04-02T14:49:16Z</time></trkpt><trkpt lat="44.10413662788859" lon="3.4013378522955167"><ele>707.5</ele><time>2026-04-02T14:49:17Z</time></trkpt><trkpt lat="44.104073505134245" lon="3.4014174200563123"><ele>707.75</ele><time>2026-04-02T14:49:18Z</time></trkpt><trkpt lat="44.10394990638274" lon="3.401536046731382"><ele>708.0</ele><time>2026-04-02T14:49:20Z</time></trkpt><trkpt lat="44.10365909259308" lon="3.4012387865591944"><ele>708.0</ele><time>2026-04-02T14:49:21Z</time></trkpt><trkpt lat="44.103572269955066" lon="3.401135571767767"><ele>708.0</ele><time>2026-04-02T14:49:23Z</time></trkpt><trkpt lat="44.103578975331395" lon="3.400945364830907"><ele>708.0</ele><time>2026-04-02T14:49:25Z</time></trkpt><trkpt lat="44.10355090652294" lon="3.4007979278209333"><ele>708.0</ele><time>2026-04-02T14:49:27Z</time></trkpt><trkpt lat="44.103686324018035" lon="3.400736044527293"><ele>708.0</ele><time>2026-04-02T14:49:30Z</time></trkpt><trkpt lat="44.103756912157976" lon="3.4006924069694335"><ele>708.0</ele><time>2026-04-02T14:49:31Z</time></trkpt><trkpt lat="44.10384691832577" lon="3.4006191655218876"><ele>708.0</ele><time>2026-04-02T14:49:32Z</time></trkpt><trkpt lat="44.10394126724822" lon="3.400530620656364"><ele>708.0</ele><time>2026-04-02T14:49:33Z</time></trkpt><trkpt lat="44.10403037163643" lon="3.4004375328507326"><ele>708.0</ele><time>2026-04-02T14:49:34Z</time></trkpt><trkpt lat="44.104111851805946" lon="3.4003327147529716"><ele>709.75</ele><time>2026-04-02T14:49:35Z</time></trkpt><trkpt lat="44.10419909659709" lon="3.400235132810043"><ele>711.5</ele><time>2026-04-02T14:49:36Z</time></trkpt><trkpt lat="44.104283353635225" lon="3.4001301563707877"><ele>713.25</ele><time>2026-04-02T14:49:37Z</time></trkpt><trkpt lat="44.10437162399219" lon="3.4000164784972124"><ele>715.0</ele><time>2026-04-02T14:49:38Z</time></trkpt><trkpt lat="44.104458767163976" lon="3.39989364875354"><ele>715.0</ele><time>2026-04-02T14:49:39Z</time></trkpt><trkpt lat="44.10454785567853" lon="3.399774217411075"><ele>715.0</ele><time>2026-04-02T14:49:40Z</time></trkpt><trkpt lat="44.1046345174323" lon="3.3996528179180183"><ele>715.0</ele><time>2026-04-02T14:49:41Z</time></trkpt><trkpt lat="44.10473426165936" lon="3.3995590745349795"><ele>715.0</ele><time>2026-04-02T14:49:42Z</time></trkpt><trkpt lat="44.10482655911699" lon="3.3994569581475607"><ele>714.75</ele><time>2026-04-02T14:49:43Z</time></trkpt><trkpt lat="44.104924804262055" lon="3.3993726371609547"><ele>714.5</ele><time>2026-04-02T14:49:44Z</time></trkpt><trkpt lat="44.10501387951601" lon="3.3992875808301903"><ele>714.25</ele><time>2026-04-02T14:49:45Z</time></trkpt><trkpt lat="44.10512712742824" lon="3.399251863151409"><ele>714.0</ele><time>2026-04-02T14:49:46Z</time></trkpt><trkpt lat="44.105242726861725" lon="3.3992353106686726"><ele>714.0</ele><time>2026-04-02T14:49:47Z</time></trkpt><trkpt lat="44.10536435434549" lon="3.3992146937169516"><ele>714.0</ele><time>2026-04-02T14:49:48Z</time></trkpt><trkpt lat="44.10548829136697" lon="3.3991941187962373"><ele>714.0</ele><time>2026-04-02T14:49:49Z</time></trkpt><trkpt lat="44.10561092545878" lon="3.399157998618139"><ele>714.0</ele><time>2026-04-02T14:49:50Z</time></trkpt><trkpt lat="44.10572678847487" lon="3.3991018284231376"><ele>712.25</ele><time>2026-04-02T14:49:51Z</time></trkpt><trkpt lat="44.10584699154968" lon="3.3990630002192126"><ele>710.5</ele><time>2026-04-02T14:49:52Z</time></trkpt><trkpt lat="44.10598957400937" lon="3.3990698751065"><ele>708.75</ele><time>2026-04-02T14:49:53Z</time></trkpt><trkpt lat="44.10615273940198" lon="3.399103288939157"><ele>707.0</ele><time>2026-04-02T14:49:54Z</time></trkpt><trkpt lat="44.106300608373424" lon="3.399177347193552"><ele>707.0</ele><time>2026-04-02T14:49:55Z</time></trkpt><trkpt lat="44.106455914523764" lon="3.3992384776911657"><ele>707.0</ele><time>2026-04-02T14:49:56Z</time></trkpt><trkpt lat="44.10660826051298" lon="3.399335481947474"><ele>707.0</ele><time>2026-04-02T14:49:57Z</time></trkpt><trkpt lat="44.10675410443169" lon="3.3994287342947183"><ele>708.0</ele><time>2026-04-02T14:49:58Z</time></trkpt><trkpt lat="44.10689979470046" lon="3.399523450096925"><ele>709.0</ele><time>2026-04-02T14:49:59Z</time></trkpt><trkpt lat="44.10704593940789" lon="3.3996198461801646"><ele>710.0</ele><time>2026-04-02T14:50:00Z</time></trkpt><trkpt lat="44.10718917233475" lon="3.3997041417371916"><ele>709.0</ele><time>2026-04-02T14:50:01Z</time></trkpt><trkpt lat="44.10733745605322" lon="3.399791015230483"><ele>708.0</ele><time>2026-04-02T14:50:02Z</time></trkpt><trkpt lat="44.10747703166568" lon="3.3998867613656594"><ele>707.0</ele><time>2026-04-02T14:50:03Z</time></trkpt><trkpt lat="44.10761335148638" lon="3.3999829346195916"><ele>707.0</ele><time>2026-04-02T14:50:04Z</time></trkpt><trkpt lat="44.10774770218458" lon="3.400085070800087"><ele>707.0</ele><time>2026-04-02T14:50:05Z</time></trkpt><trkpt lat="44.107874961448495" lon="3.4001867507027344"><ele>707.0</ele><time>2026-04-02T14:50:06Z</time></trkpt><trkpt lat="44.10799828419616" lon="3.40032068030818"><ele>707.0</ele><time>2026-04-02T14:50:07Z</time></trkpt><trkpt lat="44.10810929719513" lon="3.400476774927502"><ele>707.0</ele><time>2026-04-02T14:50:08Z</time></trkpt><trkpt lat="44.10820481755259" lon="3.4006348519253202"><ele>707.0</ele><time>2026-04-02T14:50:09Z</time></trkpt><trkpt lat="44.10830585972343" lon="3.4007891950373543"><ele>707.3333333333333</ele><time>2026-04-02T14:50:10Z</time></trkpt><trkpt lat="44.10842518414004" lon="3.40092534333366"><ele>707.6666666666666</ele><time>2026-04-02T14:50:11Z</time></trkpt><trkpt lat="44.108557981728005" lon="3.4010554953599548"><ele>708.0</ele><time>2026-04-02T14:50:12Z</time></trkpt><trkpt lat="44.1086889223838" lon="3.4011951344465636"><ele>708.6666666666666</ele><time>2026-04-02T14:50:13Z</time></trkpt><trkpt lat="44.108821781658676" lon="3.4013345789553693"><ele>709.3333333333333</ele><time>2026-04-02T14:50:14Z</time></trkpt><trkpt lat="44.108957001105026" lon="3.4014742152207824"><ele>710.0</ele><time>2026-04-02T14:50:15Z</time></trkpt><trkpt lat="44.109094586361806" lon="3.4016087816045193"><ele>711.6666666666666</ele><time>2026-04-02T14:50:16Z</time></trkpt><trkpt lat="44.10923272454095" lon="3.4017391168353797"><ele>713.3333333333334</ele><time>2026-04-02T14:50:17Z</time></trkpt><trkpt lat="44.10937450023239" lon="3.4018541389597794"><ele>715.0</ele><time>2026-04-02T14:50:18Z</time></trkpt><trkpt lat="44.10951897467189" lon="3.401947375715422"><ele>715.0</ele><time>2026-04-02T14:50:19Z</time></trkpt><trkpt lat="44.10966847498623" lon="3.402038146925667"><ele>715.0</ele><time>2026-04-02T14:50:20Z</time></trkpt><trkpt lat="44.109817479202995" lon="3.402105698610989"><ele>715.0</ele><time>2026-04-02T14:50:21Z</time></trkpt><trkpt lat="44.10996903126" lon="3.402155794803079"><ele>713.6666666666667</ele><time>2026-04-02T14:50:22Z</time></trkpt><trkpt lat="44.1101264349776" lon="3.402191016956061"><ele>712.3333333333334</ele><time>2026-04-02T14:50:23Z</time></trkpt><trkpt lat="44.110284921110264" lon="3.4022119954077943"><ele>711.0</ele><time>2026-04-02T14:50:24Z</time></trkpt><trkpt lat="44.110444116899345" lon="3.4022298960950472"><ele>711.0</ele><time>2026-04-02T14:50:25Z</time></trkpt><trkpt lat="44.110601908918305" lon="3.4022402533223954"><ele>711.0</ele><time>2026-04-02T14:50:26Z</time></trkpt><trkpt lat="44.110756675550086" lon="3.4022450546310448"><ele>711.0</ele><time>2026-04-02T14:50:27Z</time></trkpt><trkpt lat="44.1109071903824" lon="3.402234624380251"><ele>711.25</ele><time>2026-04-02T14:50:28Z</time></trkpt><trkpt lat="44.111052508421196" lon="3.4022257918625676"><ele>711.5</ele><time>2026-04-02T14:50:29Z</time></trkpt><trkpt lat="44.111194254077816" lon="3.40227552052763"><ele>711.75</ele><time>2026-04-02T14:50:30Z</time></trkpt><trkpt lat="44.111334935088585" lon="3.4023480757209894"><ele>712.0</ele><time>2026-04-02T14:50:31Z</time></trkpt><trkpt lat="44.11148750432533" lon="3.4024052701638507"><ele>714.5</ele><time>2026-04-02T14:50:32Z</time></trkpt><trkpt lat="44.111623910674055" lon="3.4024873532575333"><ele>717.0</ele><time>2026-04-02T14:50:33Z</time></trkpt><trkpt lat="44.1117535242059" lon="3.402574344658331"><ele>719.5</ele><time>2026-04-02T14:50:34Z</time></trkpt><trkpt lat="44.11187000177052" lon="3.4027015629713246"><ele>722.0</ele><time>2026-04-02T14:50:35Z</time></trkpt><trkpt lat="44.1119935568856" lon="3.4028300567762857"><ele>722.0</ele><time>2026-04-02T14:50:36Z</time></trkpt><trkpt lat="44.11211859532423" lon="3.4029653436413025"><ele>722.0</ele><time>2026-04-02T14:50:37Z</time></trkpt><trkpt lat="44.11225775811735" lon="3.4030803896070174"><ele>722.0</ele><time>2026-04-02T14:50:38Z</time></trkpt><trkpt lat="44.112391518893304" lon="3.4032116183110284"><ele>723.0</ele><time>2026-04-02T14:50:39Z</time></trkpt><trkpt lat="44.1125206421556" lon="3.4033375787283506"><ele>724.0</ele><time>2026-04-02T14:50:40Z</time></trkpt><trkpt lat="44.11263327084269" lon="3.403494891507862"><ele>725.0</ele><time>2026-04-02T14:50:41Z</time></trkpt><trkpt lat="44.11273931126383" lon="3.4036587137545458"><ele>721.6666666666666</ele><time>2026-04-02T14:50:42Z</time></trkpt><trkpt lat="44.112830720121245" lon="3.4038392528079964"><ele>718.3333333333334</ele><time>2026-04-02T14:50:43Z</time></trkpt><trkpt lat="44.11291212459617" lon="3.4040305687462333"><ele>715.0</ele><time>2026-04-02T14:50:44Z</time></trkpt><trkpt lat="44.11298727680487" lon="3.404221668162603"><ele>715.0</ele><time>2026-04-02T14:50:45Z</time></trkpt><trkpt lat="44.113057300333345" lon="3.4044133408230817"><ele>715.0</ele><time>2026-04-02T14:50:46Z</time></trkpt><trkpt lat="44.11311890516842" lon="3.4046069429400583"><ele>715.0</ele><time>2026-04-02T14:50:47Z</time></trkpt><trkpt lat="44.113155860235786" lon="3.4048043020168923"><ele>714.75</ele><time>2026-04-02T14:50:48Z</time></trkpt><trkpt lat="44.113186602990616" lon="3.40500489135111"><ele>714.5</ele><time>2026-04-02T14:50:49Z</time></trkpt><trkpt lat="44.11321481556748" lon="3.4052051473132092"><ele>714.25</ele><time>2026-04-02T14:50:50Z</time></trkpt><trkpt lat="44.1132405904404" lon="3.405393666872197"><ele>714.0</ele><time>2026-04-02T14:50:51Z</time></trkpt><trkpt lat="44.113266398334275" lon="3.405561161047457"><ele>715.6</ele><time>2026-04-02T14:50:52Z</time></trkpt><trkpt lat="44.11330513518099" lon="3.405697449196588"><ele>717.2</ele><time>2026-04-02T14:50:53Z</time></trkpt><trkpt lat="44.11333403206966" lon="3.4058209601128535"><ele>718.8000000000001</ele><time>2026-04-02T14:50:54Z</time></trkpt><trkpt lat="44.11338893980992" lon="3.405932939718743"><ele>720.4000000000001</ele><time>2026-04-02T14:50:55Z</time></trkpt><trkpt lat="44.113470280353035" lon="3.406014989588727"><ele>722.0</ele><time>2026-04-02T14:50:56Z</time></trkpt><trkpt lat="44.113557673701266" lon="3.406042560886883"><ele>722.0</ele><time>2026-04-02T14:50:57Z</time></trkpt><trkpt lat="44.11364945030613" lon="3.406007660905346"><ele>722.0</ele><time>2026-04-02T14:50:58Z</time></trkpt><trkpt lat="44.113739776708016" lon="3.4059246355752966"><ele>722.0</ele><time>2026-04-02T14:50:59Z</time></trkpt><trkpt lat="44.11383691157102" lon="3.405858729593231"><ele>722.0</ele><time>2026-04-02T14:51:00Z</time></trkpt><trkpt lat="44.11393774331649" lon="3.405849308546819"><ele>722.0</ele><time>2026-04-02T14:51:01Z</time></trkpt><trkpt lat="44.114015443034035" lon="3.405941350620192"><ele>721.8</ele><time>2026-04-02T14:51:02Z</time></trkpt><trkpt lat="44.11409576850545" lon="3.4059922430126135"><ele>721.6</ele><time>2026-04-02T14:51:03Z</time></trkpt><trkpt lat="44.114169097429084" lon="3.4060676281954634"><ele>721.4</ele><time>2026-04-02T14:51:04Z</time></trkpt><trkpt lat="44.11416986344685" lon="3.4062041914032752"><ele>721.1999999999999</ele><time>2026-04-02T14:51:05Z</time></trkpt><trkpt lat="44.1141770865596" lon="3.4063278262156684"><ele>721.0</ele><time>2026-04-02T14:51:06Z</time></trkpt><trkpt lat="44.114210687755005" lon="3.4064487403754837"><ele>721.0</ele><time>2026-04-02T14:51:07Z</time></trkpt><trkpt lat="44.11426466929013" lon="3.406556142352038"><ele>721.0</ele><time>2026-04-02T14:51:08Z</time></trkpt><trkpt lat="44.11435642406841" lon="3.406639021820051"><ele>721.0</ele><time>2026-04-02T14:51:09Z</time></trkpt><trkpt lat="44.114467046181375" lon="3.406709333045764"><ele>721.0</ele><time>2026-04-02T14:51:10Z</time></trkpt><trkpt lat="44.11459238286948" lon="3.4067730191898815"><ele>721.0</ele><time>2026-04-02T14:51:11Z</time></trkpt><trkpt lat="44.11471443342108" lon="3.406844533748487"><ele>721.0</ele><time>2026-04-02T14:51:12Z</time></trkpt><trkpt lat="44.11483831336457" lon="3.4069290606391838"><ele>721.0</ele><time>2026-04-02T14:51:13Z</time></trkpt><trkpt lat="44.11497414215147" lon="3.4069889270241456"><ele>721.0</ele><time>2026-04-02T14:51:14Z</time></trkpt><trkpt lat="44.11509492720345" lon="3.4070487637016185"><ele>721.0</ele><time>2026-04-02T14:51:15Z</time></trkpt><trkpt lat="44.115199636984514" lon="3.407084702745521"><ele>721.0</ele><time>2026-04-02T14:51:16Z</time></trkpt><trkpt lat="44.11529290703416" lon="3.4071252906468126"><ele>721.0</ele><time>2026-04-02T14:51:17Z</time></trkpt><trkpt lat="44.11537688092445" lon="3.4071726362334207"><ele>721.0</ele><time>2026-04-02T14:51:18Z</time></trkpt><trkpt lat="44.115423904583956" lon="3.4072596854025345"><ele>721.0</ele><time>2026-04-02T14:51:19Z</time></trkpt><trkpt lat="44.115442175427866" lon="3.4073455239006747"><ele>721.0</ele><time>2026-04-02T14:51:20Z</time></trkpt><trkpt lat="44.1154691957208" lon="3.407424969827405"><ele>721.0</ele><time>2026-04-02T14:51:21Z</time></trkpt><trkpt lat="44.115492906125816" lon="3.407539399091782"><ele>721.0</ele><time>2026-04-02T14:51:23Z</time></trkpt><trkpt lat="44.115519724418" lon="3.4076422853506183"><ele>721.0</ele><time>2026-04-02T14:51:25Z</time></trkpt><trkpt lat="44.11552781982976" lon="3.407748392477283"><ele>721.0</ele><time>2026-04-02T14:51:45Z</time></trkpt><trkpt lat="44.115657020526456" lon="3.407830396127946"><ele>721.0</ele><time>2026-04-02T14:51:46Z</time></trkpt><trkpt lat="44.11568511081127" lon="3.4079463468052604"><ele>720.0</ele><time>2026-04-02T14:51:47Z</time></trkpt><trkpt lat="44.115702706856645" lon="3.408079358388465"><ele>719.0</ele><time>2026-04-02T14:51:48Z</time></trkpt><trkpt lat="44.11572160360061" lon="3.408219118474239"><ele>718.0</ele><time>2026-04-02T14:51:49Z</time></trkpt><trkpt lat="44.115720244606834" lon="3.4083714316180087"><ele>717.0</ele><time>2026-04-02T14:51:50Z</time></trkpt><trkpt lat="44.11571089526367" lon="3.408527983363796"><ele>716.0</ele><time>2026-04-02T14:51:51Z</time></trkpt><trkpt lat="44.11570033176536" lon="3.4086588561278446"><ele>716.0</ele><time>2026-04-02T14:51:52Z</time></trkpt><trkpt lat="44.1156956230363" lon="3.408773051954108"><ele>716.0</ele><time>2026-04-02T14:51:53Z</time></trkpt><trkpt lat="44.11571072256065" lon="3.4088882591454523"><ele>716.0</ele><time>2026-04-02T14:51:54Z</time></trkpt><trkpt lat="44.115737605469405" lon="3.4090100122940203"><ele>716.0</ele><time>2026-04-02T14:51:55Z</time></trkpt><trkpt lat="44.11575770456294" lon="3.4091512890554863"><ele>716.0</ele><time>2026-04-02T14:51:56Z</time></trkpt><trkpt lat="44.115811264932134" lon="3.409284800361867"><ele>721.4</ele><time>2026-04-02T14:51:57Z</time></trkpt><trkpt lat="44.11585672123001" lon="3.4094242037358975"><ele>726.8</ele><time>2026-04-02T14:51:58Z</time></trkpt><trkpt lat="44.11591141281509" lon="3.4095345923082654"><ele>732.1999999999999</ele><time>2026-04-02T14:51:59Z</time></trkpt><trkpt lat="44.11597558578846" lon="3.409610848623451"><ele>737.5999999999999</ele><time>2026-04-02T14:52:00Z</time></trkpt><trkpt lat="44.116035328618565" lon="3.409645976482472"><ele>743.0</ele><time>2026-04-02T14:52:01Z</time></trkpt><trkpt lat="44.116099947552065" lon="3.409491203769457"><ele>743.0</ele><time>2026-04-02T14:52:04Z</time></trkpt><trkpt lat="44.11601517518773" lon="3.4094368375491535"><ele>743.0</ele><time>2026-04-02T14:52:05Z</time></trkpt><trkpt lat="44.11594792773894" lon="3.409357608262635"><ele>743.0</ele><time>2026-04-02T14:52:06Z</time></trkpt><trkpt lat="44.11591168122852" lon="3.4092802436351652"><ele>743.0</ele><time>2026-04-02T14:52:07Z</time></trkpt><trkpt lat="44.11590383651652" lon="3.409191528437232"><ele>743.0</ele><time>2026-04-02T14:52:08Z</time></trkpt><trkpt lat="44.11593037077794" lon="3.409103510521573"><ele>743.0</ele><time>2026-04-02T14:52:09Z</time></trkpt><trkpt lat="44.11594486655374" lon="3.4089910749446433"><ele>743.0</ele><time>2026-04-02T14:52:10Z</time></trkpt><trkpt lat="44.11596365416689" lon="3.408867775042158"><ele>743.0</ele><time>2026-04-02T14:52:11Z</time></trkpt><trkpt lat="44.11598237107214" lon="3.408750213902782"><ele>743.0</ele><time>2026-04-02T14:52:12Z</time></trkpt><trkpt lat="44.116003107699214" lon="3.408630885109277"><ele>743.0</ele><time>2026-04-02T14:52:13Z</time></trkpt><trkpt lat="44.11602076867026" lon="3.4085023708072626"><ele>743.0</ele><time>2026-04-02T14:52:14Z</time></trkpt><trkpt lat="44.11604285168029" lon="3.40836591124487"><ele>743.75</ele><time>2026-04-02T14:52:15Z</time></trkpt><trkpt lat="44.11608911017617" lon="3.408217235848091"><ele>744.5</ele><time>2026-04-02T14:52:16Z</time></trkpt><trkpt lat="44.11612304421294" lon="3.408064640080072"><ele>745.25</ele><time>2026-04-02T14:52:17Z</time></trkpt><trkpt lat="44.11613829657842" lon="3.4079045424901935"><ele>746.0</ele><time>2026-04-02T14:52:18Z</time></trkpt><trkpt lat="44.116157518771566" lon="3.4077382110301193"><ele>746.5999999999999</ele><time>2026-04-02T14:52:19Z</time></trkpt><trkpt lat="44.116173743064074" lon="3.4075810399103057"><ele>747.2</ele><time>2026-04-02T14:52:20Z</time></trkpt><trkpt lat="44.11617314750555" lon="3.407425674967585"><ele>747.8</ele><time>2026-04-02T14:52:21Z</time></trkpt><trkpt lat="44.11617636210954" lon="3.4072651562747223"><ele>748.4000000000001</ele><time>2026-04-02T14:52:22Z</time></trkpt><trkpt lat="44.11617251351427" lon="3.4071201362448487"><ele>749.0</ele><time>2026-04-02T14:52:23Z</time></trkpt><trkpt lat="44.116170278651865" lon="3.406981429627473"><ele>751.4000000000001</ele><time>2026-04-02T14:52:24Z</time></trkpt><trkpt lat="44.11618261287853" lon="3.4068516899855585"><ele>753.8</ele><time>2026-04-02T14:52:25Z</time></trkpt><trkpt lat="44.11621367406899" lon="3.406726361431073"><ele>756.2</ele><time>2026-04-02T14:52:26Z</time></trkpt><trkpt lat="44.11625951501094" lon="3.406605495957618"><ele>758.5999999999999</ele><time>2026-04-02T14:52:27Z</time></trkpt><trkpt lat="44.116302667556674" lon="3.4064833003629826"><ele>761.0</ele><time>2026-04-02T14:52:28Z</time></trkpt><trkpt lat="44.11636098373641" lon="3.406345185669233"><ele>762.4</ele><time>2026-04-02T14:52:29Z</time></trkpt><trkpt lat="44.11640337575075" lon="3.4062186996622343"><ele>763.8</ele><time>2026-04-02T14:52:30Z</time></trkpt><trkpt lat="44.11645212965897" lon="3.4060852608350123"><ele>765.1999999999999</ele><time>2026-04-02T14:52:31Z</time></trkpt><trkpt lat="44.11649580041512" lon="3.405961485243777"><ele>766.5999999999999</ele><time>2026-04-02T14:52:32Z</time></trkpt><trkpt lat="44.11653550721761" lon="3.405856027927506"><ele>768.0</ele><time>2026-04-02T14:52:33Z</time></trkpt><trkpt lat="44.116583520546484" lon="3.4057632465232803"><ele>767.0</ele><time>2026-04-02T14:52:34Z</time></trkpt><trkpt lat="44.116636042968516" lon="3.4056890227897005"><ele>766.0</ele><time>2026-04-02T14:52:35Z</time></trkpt><trkpt lat="44.11668455336247" lon="3.4056272192531067"><ele>765.0</ele><time>2026-04-02T14:52:36Z</time></trkpt><trkpt lat="44.11673326907978" lon="3.405490932210215"><ele>764.0</ele><time>2026-04-02T14:52:38Z</time></trkpt><trkpt lat="44.116637162190365" lon="3.4053940957892816"><ele>763.0</ele><time>2026-04-02T14:52:40Z</time></trkpt><trkpt lat="44.11655730982515" lon="3.405361761096794"><ele>763.0</ele><time>2026-04-02T14:52:41Z</time></trkpt><trkpt lat="44.116488645668106" lon="3.4053146952194986"><ele>763.0</ele><time>2026-04-02T14:52:42Z</time></trkpt><trkpt lat="44.11645877426331" lon="3.405219713093062"><ele>763.0</ele><time>2026-04-02T14:52:43Z</time></trkpt><trkpt lat="44.116441080767984" lon="3.4051119112710904"><ele>763.0</ele><time>2026-04-02T14:52:44Z</time></trkpt><trkpt lat="44.11648069283761" lon="3.404945615356982"><ele>763.0</ele><time>2026-04-02T14:52:46Z</time></trkpt><trkpt lat="44.11649266725928" lon="3.404826527603975"><ele>763.0</ele><time>2026-04-02T14:52:47Z</time></trkpt><trkpt lat="44.116531122552466" lon="3.404677348801881"><ele>770.0</ele><time>2026-04-02T14:52:48Z</time></trkpt><trkpt lat="44.116577474040675" lon="3.4044984477884253"><ele>777.0</ele><time>2026-04-02T14:52:49Z</time></trkpt><trkpt lat="44.116620804732776" lon="3.4043436480725284"><ele>784.0</ele><time>2026-04-02T14:52:50Z</time></trkpt><trkpt lat="44.11668784951219" lon="3.4041573001427694"><ele>791.0</ele><time>2026-04-02T14:52:51Z</time></trkpt><trkpt lat="44.116760428717036" lon="3.403958565559975"><ele>789.25</ele><time>2026-04-02T14:52:52Z</time></trkpt><trkpt lat="44.11684129344848" lon="3.403827003452867"><ele>787.5</ele><time>2026-04-02T14:52:53Z</time></trkpt><trkpt lat="44.11691544361505" lon="3.4036746991504163"><ele>785.75</ele><time>2026-04-02T14:52:54Z</time></trkpt><trkpt lat="44.11699455960933" lon="3.403509312661916"><ele>784.0</ele><time>2026-04-02T14:52:55Z</time></trkpt><trkpt lat="44.11706583657356" lon="3.403344984673933"><ele>784.0</ele><time>2026-04-02T14:52:56Z</time></trkpt><trkpt lat="44.11712029787795" lon="3.403192517722682"><ele>784.0</ele><time>2026-04-02T14:52:57Z</time></trkpt><trkpt lat="44.11714822747843" lon="3.403069589104437"><ele>784.0</ele><time>2026-04-02T14:52:58Z</time></trkpt><trkpt lat="44.11719144052156" lon="3.402937073995393"><ele>784.0</ele><time>2026-04-02T14:52:59Z</time></trkpt><trkpt lat="44.11722801053184" lon="3.4027740907009805"><ele>784.0</ele><time>2026-04-02T14:53:00Z</time></trkpt><trkpt lat="44.11727263627287" lon="3.4025964375067397"><ele>786.25</ele><time>2026-04-02T14:53:01Z</time></trkpt><trkpt lat="44.11731229763874" lon="3.4024352827730606"><ele>788.5</ele><time>2026-04-02T14:53:02Z</time></trkpt><trkpt lat="44.11735213186234" lon="3.4022783704001487"><ele>790.75</ele><time>2026-04-02T14:53:03Z</time></trkpt><trkpt lat="44.117409977870444" lon="3.4021386243623386"><ele>793.0</ele><time>2026-04-02T14:53:04Z</time></trkpt><trkpt lat="44.11745291081019" lon="3.40198211511947"><ele>803.5</ele><time>2026-04-02T14:53:05Z</time></trkpt><trkpt lat="44.11748762908198" lon="3.4018315891655675"><ele>814.0</ele><time>2026-04-02T14:53:06Z</time></trkpt><trkpt lat="44.11752719360772" lon="3.4017031573761587"><ele>824.5</ele><time>2026-04-02T14:53:07Z</time></trkpt><trkpt lat="44.11753445771033" lon="3.40154194417944"><ele>835.0</ele><time>2026-04-02T14:53:08Z</time></trkpt><trkpt lat="44.11755586865097" lon="3.4013707691002475"><ele>835.75</ele><time>2026-04-02T14:53:09Z</time></trkpt><trkpt lat="44.11756590029811" lon="3.401189958553496"><ele>836.5</ele><time>2026-04-02T14:53:10Z</time></trkpt><trkpt lat="44.11757122741447" lon="3.4010177472032614"><ele>837.25</ele><time>2026-04-02T14:53:11Z</time></trkpt><trkpt lat="44.11755712465381" lon="3.4008327065201605"><ele>838.0</ele><time>2026-04-02T14:53:12Z</time></trkpt><trkpt lat="44.117564704468506" lon="3.4006516117406096"><ele>841.25</ele><time>2026-04-02T14:53:13Z</time></trkpt><trkpt lat="44.11755478804542" lon="3.400472238339604"><ele>844.5</ele><time>2026-04-02T14:53:14Z</time></trkpt><trkpt lat="44.117528852149825" lon="3.400317554237729"><ele>847.75</ele><time>2026-04-02T14:53:15Z</time></trkpt><trkpt lat="44.117510264551434" lon="3.400155119182355"><ele>851.0</ele><time>2026-04-02T14:53:16Z</time></trkpt><trkpt lat="44.11749123786228" lon="3.400010427373799"><ele>851.0</ele><time>2026-04-02T14:53:17Z</time></trkpt><trkpt lat="44.11747939181205" lon="3.399865476456968"><ele>851.0</ele><time>2026-04-02T14:53:18Z</time></trkpt><trkpt lat="44.11749468680871" lon="3.399721122989355"><ele>851.0</ele><time>2026-04-02T14:53:19Z</time></trkpt><trkpt lat="44.11748935863651" lon="3.3995830351875065"><ele>851.0</ele><time>2026-04-02T14:53:20Z</time></trkpt><trkpt lat="44.11747567145576" lon="3.399478612788608"><ele>851.0</ele><time>2026-04-02T14:53:21Z</time></trkpt><trkpt lat="44.117495324071605" lon="3.3993106704674356"><ele>853.1999999999999</ele><time>2026-04-02T14:53:23Z</time></trkpt><trkpt lat="44.11754099663356" lon="3.399196406858345"><ele>855.4</ele><time>2026-04-02T14:53:24Z</time></trkpt><trkpt lat="44.117587574253214" lon="3.399047086486351"><ele>857.6</ele><time>2026-04-02T14:53:25Z</time></trkpt><trkpt lat="44.11762927998597" lon="3.3989091896863446"><ele>859.8</ele><time>2026-04-02T14:53:26Z</time></trkpt><trkpt lat="44.11769927916657" lon="3.3988141725283856"><ele>862.0</ele><time>2026-04-02T14:53:27Z</time></trkpt><trkpt lat="44.11777879553339" lon="3.398725536336102"><ele>866.0</ele><time>2026-04-02T14:53:28Z</time></trkpt><trkpt lat="44.1178522382522" lon="3.398607501913739"><ele>870.0</ele><time>2026-04-02T14:53:29Z</time></trkpt><trkpt lat="44.11795369407181" lon="3.3985070951063774"><ele>874.0</ele><time>2026-04-02T14:53:30Z</time></trkpt><trkpt lat="44.1180298395973" lon="3.3983711542475747"><ele>878.0</ele><time>2026-04-02T14:53:31Z</time></trkpt><trkpt lat="44.11811520609341" lon="3.3982438126636314"><ele>878.0</ele><time>2026-04-02T14:53:32Z</time></trkpt><trkpt lat="44.11821769136411" lon="3.3981466779604927"><ele>878.0</ele><time>2026-04-02T14:53:33Z</time></trkpt><trkpt lat="44.11833229254139" lon="3.3980420756296743"><ele>878.0</ele><time>2026-04-02T14:53:34Z</time></trkpt><trkpt lat="44.11844045240422" lon="3.3979326872370943"><ele>878.0</ele><time>2026-04-02T14:53:35Z</time></trkpt><trkpt lat="44.11854118999195" lon="3.397815393037313"><ele>877.25</ele><time>2026-04-02T14:53:36Z</time></trkpt><trkpt lat="44.11864204872006" lon="3.397698263282945"><ele>876.5</ele><time>2026-04-02T14:53:37Z</time></trkpt><trkpt lat="44.11875571545457" lon="3.397637525062845"><ele>875.75</ele><time>2026-04-02T14:53:38Z</time></trkpt><trkpt lat="44.11884469322349" lon="3.397563912269939"><ele>875.0</ele><time>2026-04-02T14:53:39Z</time></trkpt><trkpt lat="44.118921511405006" lon="3.397470518720387"><ele>875.0</ele><time>2026-04-02T14:53:40Z</time></trkpt><trkpt lat="44.11900258724161" lon="3.3973883459442855"><ele>875.0</ele><time>2026-04-02T14:53:41Z</time></trkpt><trkpt lat="44.119084985828984" lon="3.397312884573936"><ele>875.0</ele><time>2026-04-02T14:53:42Z</time></trkpt><trkpt lat="44.11916561309861" lon="3.397237909673469"><ele>875.0</ele><time>2026-04-02T14:53:43Z</time></trkpt><trkpt lat="44.11924327382109" lon="3.397165263206875"><ele>875.0</ele><time>2026-04-02T14:53:44Z</time></trkpt><trkpt lat="44.11933738907018" lon="3.3970772245792387"><ele>876.2</ele><time>2026-04-02T14:53:45Z</time></trkpt><trkpt lat="44.119436361817236" lon="3.3969602127997467"><ele>877.4</ele><time>2026-04-02T14:53:46Z</time></trkpt><trkpt lat="44.119539923907645" lon="3.396876961297428"><ele>878.5999999999999</ele><time>2026-04-02T14:53:47Z</time></trkpt><trkpt lat="44.11960758029775" lon="3.3967977920344805"><ele>879.8</ele><time>2026-04-02T14:53:48Z</time></trkpt><trkpt lat="44.11966763375749" lon="3.396737845575013"><ele>881.0</ele><time>2026-04-02T14:53:49Z</time></trkpt><trkpt lat="44.119707046269" lon="3.396642779624797"><ele>881.0</ele><time>2026-04-02T14:53:51Z</time></trkpt><trkpt lat="44.11978343264225" lon="3.396519484777519"><ele>880.9999999999999</ele><time>2026-04-02T14:53:53Z</time></trkpt><trkpt lat="44.119946478569624" lon="3.3966102679275205"><ele>880.9999999999999</ele><time>2026-04-02T14:53:54Z</time></trkpt><trkpt lat="44.12001088192185" lon="3.3965761729046267"><ele>881.0</ele><time>2026-04-02T14:53:55Z</time></trkpt><trkpt lat="44.120079161749636" lon="3.396539776203209"><ele>881.0</ele><time>2026-04-02T14:53:56Z</time></trkpt><trkpt lat="44.12018403706902" lon="3.3964524037820696"><ele>880.5000000000001</ele><time>2026-04-02T14:53:58Z</time></trkpt><trkpt lat="44.120257376787855" lon="3.396405577563102"><ele>880.0</ele><time>2026-04-02T14:53:59Z</time></trkpt><trkpt lat="44.120331360595145" lon="3.3963789366850436"><ele>879.5</ele><time>2026-04-02T14:54:00Z</time></trkpt><trkpt lat="44.120404492630605" lon="3.39636356982831"><ele>879.0</ele><time>2026-04-02T14:54:01Z</time></trkpt><trkpt lat="44.120479978571225" lon="3.3963698975581096"><ele>878.5000000000001</ele><time>2026-04-02T14:54:02Z</time></trkpt><trkpt lat="44.12055624504417" lon="3.396393102576662"><ele>878.0</ele><time>2026-04-02T14:54:03Z</time></trkpt><trkpt lat="44.12062099558264" lon="3.3963900804282763"><ele>879.5999999999999</ele><time>2026-04-02T14:54:04Z</time></trkpt><trkpt lat="44.12071744108451" lon="3.3962821539042105"><ele>881.1999999999999</ele><time>2026-04-02T14:54:06Z</time></trkpt><trkpt lat="44.120827177494036" lon="3.396216286176031"><ele>882.8</ele><time>2026-04-02T14:54:08Z</time></trkpt><trkpt lat="44.12090911596511" lon="3.3962433239748213"><ele>884.4</ele><time>2026-04-02T14:54:09Z</time></trkpt><trkpt lat="44.1210035267489" lon="3.396287075454383"><ele>886.0</ele><time>2026-04-02T14:54:10Z</time></trkpt><trkpt lat="44.12110692714541" lon="3.3963430471273908"><ele>886.0</ele><time>2026-04-02T14:54:11Z</time></trkpt><trkpt lat="44.12120508592471" lon="3.39641140805002"><ele>885.9999999999999</ele><time>2026-04-02T14:54:12Z</time></trkpt><trkpt lat="44.12130244199413" lon="3.396472074844096"><ele>885.9999999999999</ele><time>2026-04-02T14:54:13Z</time></trkpt><trkpt lat="44.121405867108734" lon="3.396523238967868"><ele>886.0</ele><time>2026-04-02T14:54:14Z</time></trkpt><trkpt lat="44.12150364487217" lon="3.3965732168289984"><ele>886.0</ele><time>2026-04-02T14:54:15Z</time></trkpt><trkpt lat="44.121595132808636" lon="3.396608258782463"><ele>885.9999999999999</ele><time>2026-04-02T14:54:16Z</time></trkpt><trkpt lat="44.12165882349475" lon="3.3966728312494014"><ele>886.0</ele><time>2026-04-02T14:54:17Z</time></trkpt><trkpt lat="44.12172855072683" lon="3.3967072543013117"><ele>886.0</ele><time>2026-04-02T14:54:18Z</time></trkpt><trkpt lat="44.12182941517802" lon="3.3967917178202627"><ele>886.0</ele><time>2026-04-02T14:54:20Z</time></trkpt><trkpt lat="44.12187557810521" lon="3.3968976818507985"><ele>885.9999999999999</ele><time>2026-04-02T14:54:22Z</time></trkpt><trkpt lat="44.121854750829115" lon="3.396993430294445"><ele>886.0</ele><time>2026-04-02T14:54:24Z</time></trkpt><trkpt lat="44.12173450429381" lon="3.397033218092445"><ele>886.0</ele><time>2026-04-02T14:54:26Z</time></trkpt><trkpt lat="44.12165461730248" lon="3.397015709212976"><ele>885.9999999999999</ele><time>2026-04-02T14:54:27Z</time></trkpt><trkpt lat="44.12156870877023" lon="3.3969920337747586"><ele>885.9999999999999</ele><time>2026-04-02T14:54:28Z</time></trkpt><trkpt lat="44.12147586808716" lon="3.3969410312003467"><ele>886.0</ele><time>2026-04-02T14:54:29Z</time></trkpt><trkpt lat="44.121352779606354" lon="3.3968570092257853"><ele>886.0</ele><time>2026-04-02T14:54:30Z</time></trkpt><trkpt lat="44.12126586618094" lon="3.396816242544524"><ele>886.0</ele><time>2026-04-02T14:54:31Z</time></trkpt><trkpt lat="44.12118749281157" lon="3.396810431131211"><ele>886.0</ele><time>2026-04-02T14:54:32Z</time></trkpt><trkpt lat="44.121120384106355" lon="3.3967724552125635"><ele>886.0</ele><time>2026-04-02T14:54:33Z</time></trkpt><trkpt lat="44.121047356715785" lon="3.396736585849807"><ele>886.0</ele><time>2026-04-02T14:54:34Z</time></trkpt><trkpt lat="44.12098011634913" lon="3.3967091961589997"><ele>886.0</ele><time>2026-04-02T14:54:35Z</time></trkpt><trkpt lat="44.12091009333149" lon="3.3966919932975497"><ele>886.0</ele><time>2026-04-02T14:54:36Z</time></trkpt><trkpt lat="44.120838945232634" lon="3.396708098901616"><ele>886.0</ele><time>2026-04-02T14:54:37Z</time></trkpt><trkpt lat="44.12078487439418" lon="3.396766031974647"><ele>884.4</ele><time>2026-04-02T14:54:38Z</time></trkpt><trkpt lat="44.12071845618146" lon="3.3968652400367145"><ele>882.8</ele><time>2026-04-02T14:54:39Z</time></trkpt><trkpt lat="44.120622951864185" lon="3.396937331203367"><ele>881.1999999999999</ele><time>2026-04-02T14:54:40Z</time></trkpt><trkpt lat="44.12053321574746" lon="3.397016601511876"><ele>879.5999999999999</ele><time>2026-04-02T14:54:41Z</time></trkpt><trkpt lat="44.12042999659696" lon="3.3971087196611096"><ele>878.0</ele><time>2026-04-02T14:54:42Z</time></trkpt><trkpt lat="44.120322570093386" lon="3.39717222469553"><ele>878.2</ele><time>2026-04-02T14:54:43Z</time></trkpt><trkpt lat="44.1202373417474" lon="3.39724510398008"><ele>878.4</ele><time>2026-04-02T14:54:44Z</time></trkpt><trkpt lat="44.12016060650427" lon="3.397315305661532"><ele>878.6000000000001</ele><time>2026-04-02T14:54:45Z</time></trkpt><trkpt lat="44.12006669480787" lon="3.397422715745812"><ele>878.8000000000001</ele><time>2026-04-02T14:54:46Z</time></trkpt><trkpt lat="44.119962553170254" lon="3.3975007564183968"><ele>879.0</ele><time>2026-04-02T14:54:47Z</time></trkpt><trkpt lat="44.119878877038886" lon="3.397585581622049"><ele>879.0</ele><time>2026-04-02T14:54:48Z</time></trkpt><trkpt lat="44.11980305915885" lon="3.397664557792927"><ele>879.0</ele><time>2026-04-02T14:54:49Z</time></trkpt><trkpt lat="44.11972580190931" lon="3.397753242807383"><ele>879.0</ele><time>2026-04-02T14:54:50Z</time></trkpt><trkpt lat="44.11967483315199" lon="3.3978279395202207"><ele>879.0</ele><time>2026-04-02T14:54:51Z</time></trkpt><trkpt lat="44.11963257870544" lon="3.3978976638715235"><ele>879.0</ele><time>2026-04-02T14:54:52Z</time></trkpt><trkpt lat="44.11958291909382" lon="3.398029950272402"><ele>879.0</ele><time>2026-04-02T14:54:53Z</time></trkpt><trkpt lat="44.119493382011456" lon="3.3982018130744907"><ele>883.4000000000001</ele><time>2026-04-02T14:54:54Z</time></trkpt><trkpt lat="44.11942811901731" lon="3.398344979924886"><ele>887.8000000000001</ele><time>2026-04-02T14:54:55Z</time></trkpt><trkpt lat="44.11937677341869" lon="3.398474137988286"><ele>892.1999999999999</ele><time>2026-04-02T14:54:56Z</time></trkpt><trkpt lat="44.11932962964512" lon="3.3985929921057663"><ele>896.5999999999999</ele><time>2026-04-02T14:54:57Z</time></trkpt><trkpt lat="44.11928777060088" lon="3.3987118031511065"><ele>901.0</ele><time>2026-04-02T14:54:58Z</time></trkpt><trkpt lat="44.11924451365547" lon="3.3988318802047117"><ele>898.4</ele><time>2026-04-02T14:54:59Z</time></trkpt><trkpt lat="44.119189738451524" lon="3.398944742631763"><ele>895.8</ele><time>2026-04-02T14:55:00Z</time></trkpt><trkpt lat="44.11912846253482" lon="3.3990398027469544"><ele>893.1999999999999</ele><time>2026-04-02T14:55:01Z</time></trkpt><trkpt lat="44.11905664126336" lon="3.399131280329642"><ele>890.5999999999999</ele><time>2026-04-02T14:55:02Z</time></trkpt><trkpt lat="44.11896976232545" lon="3.3992133182270443"><ele>888.0</ele><time>2026-04-02T14:55:03Z</time></trkpt><trkpt lat="44.11887377413723" lon="3.399300429322688"><ele>888.0</ele><time>2026-04-02T14:55:04Z</time></trkpt><trkpt lat="44.11879149003438" lon="3.399379574652378"><ele>888.0</ele><time>2026-04-02T14:55:05Z</time></trkpt><trkpt lat="44.118703584096416" lon="3.3994583897088324"><ele>888.0</ele><time>2026-04-02T14:55:06Z</time></trkpt><trkpt lat="44.118620371194346" lon="3.399538022290972"><ele>888.0</ele><time>2026-04-02T14:55:07Z</time></trkpt><trkpt lat="44.11857142569347" lon="3.3996582076444657"><ele>888.0</ele><time>2026-04-02T14:55:08Z</time></trkpt><trkpt lat="44.11853878331994" lon="3.399760612320578"><ele>888.8333333333334</ele><time>2026-04-02T14:55:09Z</time></trkpt><trkpt lat="44.118489615654276" lon="3.3998542012181443"><ele>889.6666666666667</ele><time>2026-04-02T14:55:10Z</time></trkpt><trkpt lat="44.11846024058836" lon="3.399967867247015"><ele>890.5</ele><time>2026-04-02T14:55:11Z</time></trkpt><trkpt lat="44.118455781845114" lon="3.4000767068694993"><ele>891.3333333333334</ele><time>2026-04-02T14:55:12Z</time></trkpt><trkpt lat="44.118471418285736" lon="3.4001832831383823"><ele>892.1666666666667</ele><time>2026-04-02T14:55:13Z</time></trkpt><trkpt lat="44.11849854194032" lon="3.4003161859873208"><ele>893.0</ele><time>2026-04-02T14:55:14Z</time></trkpt><trkpt lat="44.11856521367075" lon="3.400496768997995"><ele>893.0000000000001</ele><time>2026-04-02T14:55:16Z</time></trkpt><trkpt lat="44.11860835161086" lon="3.400601559387445"><ele>893.0</ele><time>2026-04-02T14:55:17Z</time></trkpt><trkpt lat="44.11864369936556" lon="3.400713390058625"><ele>893.0</ele><time>2026-04-02T14:55:18Z</time></trkpt><trkpt lat="44.11867505544568" lon="3.4008302359536193"><ele>893.0</ele><time>2026-04-02T14:55:19Z</time></trkpt><trkpt lat="44.118711601980706" lon="3.4009503937602017"><ele>893.0000000000001</ele><time>2026-04-02T14:55:20Z</time></trkpt><trkpt lat="44.11873684139899" lon="3.4010715438740964"><ele>893.0</ele><time>2026-04-02T14:55:21Z</time></trkpt><trkpt lat="44.118767234897845" lon="3.401205628549973"><ele>891.4</ele><time>2026-04-02T14:55:22Z</time></trkpt><trkpt lat="44.11879448786342" lon="3.401344520132463"><ele>889.8</ele><time>2026-04-02T14:55:23Z</time></trkpt><trkpt lat="44.11883222301191" lon="3.401477935693125"><ele>888.2</ele><time>2026-04-02T14:55:24Z</time></trkpt><trkpt lat="44.118862661667244" lon="3.40161071256072"><ele>886.6</ele><time>2026-04-02T14:55:25Z</time></trkpt><trkpt lat="44.11887629609616" lon="3.4017491633656136"><ele>885.0</ele><time>2026-04-02T14:55:26Z</time></trkpt><trkpt lat="44.11886801034999" lon="3.4019021810870256"><ele>885.0</ele><time>2026-04-02T14:55:27Z</time></trkpt><trkpt lat="44.11884556633818" lon="3.4020566802624024"><ele>885.0</ele><time>2026-04-02T14:55:28Z</time></trkpt><trkpt lat="44.1188288673396" lon="3.4022183314839265"><ele>885.0</ele><time>2026-04-02T14:55:29Z</time></trkpt><trkpt lat="44.11880892096709" lon="3.402381804405091"><ele>885.0</ele><time>2026-04-02T14:55:30Z</time></trkpt><trkpt lat="44.11879530266508" lon="3.40253877814469"><ele>886.0</ele><time>2026-04-02T14:55:31Z</time></trkpt><trkpt lat="44.11878760096334" lon="3.4026713944712057"><ele>887.0</ele><time>2026-04-02T14:55:32Z</time></trkpt><trkpt lat="44.118795565766284" lon="3.4027586208805336"><ele>888.0</ele><time>2026-04-02T14:55:33Z</time></trkpt><trkpt lat="44.11887768103626" lon="3.4028780305337873"><ele>889.0</ele><time>2026-04-02T14:55:35Z</time></trkpt><trkpt lat="44.11895295489537" lon="3.4029210173083073"><ele>890.0</ele><time>2026-04-02T14:55:36Z</time></trkpt><trkpt lat="44.11904357491094" lon="3.4029400147354596"><ele>898.75</ele><time>2026-04-02T14:55:37Z</time></trkpt><trkpt lat="44.1191463067629" lon="3.4029532005683967"><ele>907.5</ele><time>2026-04-02T14:55:38Z</time></trkpt><trkpt lat="44.11925721249078" lon="3.4029638077610875"><ele>916.25</ele><time>2026-04-02T14:55:39Z</time></trkpt><trkpt lat="44.11937042683365" lon="3.4029878965116134"><ele>925.0</ele><time>2026-04-02T14:55:40Z</time></trkpt><trkpt lat="44.11948829683625" lon="3.4030415574626716"><ele>925.0</ele><time>2026-04-02T14:55:41Z</time></trkpt><trkpt lat="44.11960395663108" lon="3.4031036987579"><ele>925.0</ele><time>2026-04-02T14:55:42Z</time></trkpt><trkpt lat="44.119716671360514" lon="3.4031506556244673"><ele>925.0</ele><time>2026-04-02T14:55:43Z</time></trkpt><trkpt lat="44.119811891590146" lon="3.403199294446049"><ele>925.0</ele><time>2026-04-02T14:55:44Z</time></trkpt><trkpt lat="44.11990175897968" lon="3.403245463231269"><ele>925.0</ele><time>2026-04-02T14:55:45Z</time></trkpt><trkpt lat="44.11997271923748" lon="3.403265531805411"><ele>927.1666666666666</ele><time>2026-04-02T14:55:46Z</time></trkpt><trkpt lat="44.120037799422995" lon="3.4032702209932295"><ele>929.3333333333333</ele><time>2026-04-02T14:55:47Z</time></trkpt><trkpt lat="44.12010996045164" lon="3.4032412809785577"><ele>931.5</ele><time>2026-04-02T14:55:48Z</time></trkpt><trkpt lat="44.120186039443695" lon="3.403187397656853"><ele>933.6666666666667</ele><time>2026-04-02T14:55:49Z</time></trkpt><trkpt lat="44.12028117763032" lon="3.4031213653872667"><ele>935.8333333333334</ele><time>2026-04-02T14:55:50Z</time></trkpt><trkpt lat="44.12038111293396" lon="3.403071414806918"><ele>938.0</ele><time>2026-04-02T14:55:51Z</time></trkpt><trkpt lat="44.120495811226974" lon="3.4030189869993457"><ele>940.5999999999999</ele><time>2026-04-02T14:55:52Z</time></trkpt><trkpt lat="44.12058606438349" lon="3.4029495876962392"><ele>943.1999999999999</ele><time>2026-04-02T14:55:53Z</time></trkpt><trkpt lat="44.120680104753724" lon="3.4028908736221397"><ele>945.8</ele><time>2026-04-02T14:55:54Z</time></trkpt><trkpt lat="44.12076941745811" lon="3.4028371483676896"><ele>948.4</ele><time>2026-04-02T14:55:55Z</time></trkpt><trkpt lat="44.120838812342214" lon="3.4027704718677008"><ele>951.0</ele><time>2026-04-02T14:55:56Z</time></trkpt><trkpt lat="44.12092344293663" lon="3.402724716687341"><ele>951.1666666666666</ele><time>2026-04-02T14:55:57Z</time></trkpt><trkpt lat="44.120989585236465" lon="3.4027042855365544"><ele>951.3333333333333</ele><time>2026-04-02T14:55:58Z</time></trkpt><trkpt lat="44.12109767616982" lon="3.402706472753252"><ele>951.5</ele><time>2026-04-02T14:56:00Z</time></trkpt><trkpt lat="44.12116294893392" lon="3.4027164623594532"><ele>951.6666666666666</ele><time>2026-04-02T14:56:01Z</time></trkpt><trkpt lat="44.121230300760175" lon="3.4027250041886425"><ele>951.8333333333333</ele><time>2026-04-02T14:56:02Z</time></trkpt><trkpt lat="44.121304014954625" lon="3.4027338311480384"><ele>952.0</ele><time>2026-04-02T14:56:03Z</time></trkpt><trkpt lat="44.12137925634978" lon="3.4027378087260836"><ele>952.0</ele><time>2026-04-02T14:56:04Z</time></trkpt><trkpt lat="44.121483206144255" lon="3.4027397313994223"><ele>952.0</ele><time>2026-04-02T14:56:05Z</time></trkpt><trkpt lat="44.121583354174064" lon="3.4027344452578285"><ele>952.0</ele><time>2026-04-02T14:56:06Z</time></trkpt><trkpt lat="44.121697734873685" lon="3.4027305564449"><ele>952.0</ele><time>2026-04-02T14:56:07Z</time></trkpt><trkpt lat="44.12180931826638" lon="3.4027303321810227"><ele>952.0</ele><time>2026-04-02T14:56:08Z</time></trkpt><trkpt lat="44.121919786846505" lon="3.402737111031833"><ele>954.2</ele><time>2026-04-02T14:56:09Z</time></trkpt><trkpt lat="44.12202758123077" lon="3.4027209563401963"><ele>956.4000000000001</ele><time>2026-04-02T14:56:10Z</time></trkpt><trkpt lat="44.12211819869892" lon="3.4027076235454463"><ele>958.5999999999999</ele><time>2026-04-02T14:56:11Z</time></trkpt><trkpt lat="44.122210816647055" lon="3.402716922049681"><ele>960.8</ele><time>2026-04-02T14:56:12Z</time></trkpt><trkpt lat="44.122300464845296" lon="3.4027332388842297"><ele>963.0</ele><time>2026-04-02T14:56:13Z</time></trkpt><trkpt lat="44.1223844117439" lon="3.4027288747759945"><ele>963.8</ele><time>2026-04-02T14:56:14Z</time></trkpt><trkpt lat="44.12249451086435" lon="3.402718893185345"><ele>964.5999999999999</ele><time>2026-04-02T14:56:16Z</time></trkpt><trkpt lat="44.12257172968877" lon="3.4027335312677147"><ele>965.4000000000001</ele><time>2026-04-02T14:56:18Z</time></trkpt><trkpt lat="44.122635701423924" lon="3.4028053354616805"><ele>966.2</ele><time>2026-04-02T14:56:21Z</time></trkpt><trkpt lat="44.12262415104962" lon="3.4029471944513605"><ele>967.0</ele><time>2026-04-02T14:56:24Z</time></trkpt><trkpt lat="44.122574662693296" lon="3.4030669940356626"><ele>967.9999999999999</ele><time>2026-04-02T14:56:26Z</time></trkpt><trkpt lat="44.12255572887198" lon="3.403228195771444"><ele>969.0</ele><time>2026-04-02T14:56:28Z</time></trkpt><trkpt lat="44.12254993139546" lon="3.40332849761068"><ele>970.0</ele><time>2026-04-02T14:56:29Z</time></trkpt><trkpt lat="44.122545353283236" lon="3.403428459971958"><ele>971.0</ele><time>2026-04-02T14:56:30Z</time></trkpt><trkpt lat="44.12254423087467" lon="3.403539357618652"><ele>971.9999999999999</ele><time>2026-04-02T14:56:31Z</time></trkpt><trkpt lat="44.122544093710566" lon="3.4036607431316868"><ele>973.0</ele><time>2026-04-02T14:56:32Z</time></trkpt><trkpt lat="44.12254750867561" lon="3.4037794880618564"><ele>973.4999999999999</ele><time>2026-04-02T14:56:33Z</time></trkpt><trkpt lat="44.12254609620584" lon="3.403891904805035"><ele>974.0</ele><time>2026-04-02T14:56:34Z</time></trkpt><trkpt lat="44.122553675226236" lon="3.4040040979962978"><ele>974.5</ele><time>2026-04-02T14:56:35Z</time></trkpt><trkpt lat="44.122565929229424" lon="3.4041242175879334"><ele>975.0</ele><time>2026-04-02T14:56:36Z</time></trkpt><trkpt lat="44.122572065322245" lon="3.4042175748426597"><ele>975.4999999999999</ele><time>2026-04-02T14:56:37Z</time></trkpt><trkpt lat="44.122587686443474" lon="3.4043232636634615"><ele>976.0</ele><time>2026-04-02T14:56:38Z</time></trkpt><trkpt lat="44.12260603329019" lon="3.404429443162827"><ele>975.9999999999999</ele><time>2026-04-02T14:56:39Z</time></trkpt><trkpt lat="44.1226247535476" lon="3.404557363605391"><ele>976.0</ele><time>2026-04-02T14:56:40Z</time></trkpt><trkpt lat="44.12263160155132" lon="3.4046902758583877"><ele>976.0</ele><time>2026-04-02T14:56:41Z</time></trkpt><trkpt lat="44.12263633087786" lon="3.404815702725189"><ele>976.0</ele><time>2026-04-02T14:56:42Z</time></trkpt><trkpt lat="44.12263504596603" lon="3.4049236943169134"><ele>975.9999999999999</ele><time>2026-04-02T14:56:43Z</time></trkpt><trkpt lat="44.122643503896654" lon="3.40503014182944"><ele>976.0</ele><time>2026-04-02T14:56:44Z</time></trkpt><trkpt lat="44.12266503140394" lon="3.405135535002686"><ele>975.1999999999999</ele><time>2026-04-02T14:56:45Z</time></trkpt><trkpt lat="44.12267895848174" lon="3.405227587695874"><ele>974.3999999999999</ele><time>2026-04-02T14:56:46Z</time></trkpt><trkpt lat="44.1227108795229" lon="3.405407117534476"><ele>973.6</ele><time>2026-04-02T14:56:48Z</time></trkpt><trkpt lat="44.122748599788146" lon="3.405563857763868"><ele>972.8</ele><time>2026-04-02T14:56:50Z</time></trkpt><trkpt lat="44.12274846813668" lon="3.405684472165998"><ele>972.0</ele><time>2026-04-02T14:56:52Z</time></trkpt><trkpt lat="44.12269823309319" lon="3.405762326999192"><ele>971.0</ele><time>2026-04-02T14:56:55Z</time></trkpt><trkpt lat="44.12267323457171" lon="3.405912200099318"><ele>970.0</ele><time>2026-04-02T14:58:31Z</time></trkpt><trkpt lat="44.12267013529369" lon="3.4060399603722105"><ele>969.0</ele><time>2026-04-02T14:58:33Z</time></trkpt><trkpt lat="44.12268023658084" lon="3.406132089582435"><ele>968.0</ele><time>2026-04-02T14:58:35Z</time></trkpt><trkpt lat="44.12268865549789" lon="3.406236721202464"><ele>967.0</ele><time>2026-04-02T14:58:37Z</time></trkpt><trkpt lat="44.122716962126546" lon="3.406345623882847"><ele>966.0</ele><time>2026-04-02T14:58:39Z</time></trkpt><trkpt lat="44.122691827017" lon="3.4064473530789896"><ele>965.0</ele><time>2026-04-02T14:58:41Z</time></trkpt><trkpt lat="44.12269543926842" lon="3.406563039020041"><ele>963.9999999999999</ele><time>2026-04-02T14:58:43Z</time></trkpt><trkpt lat="44.12273862757963" lon="3.4066645713323744"><ele>962.9999999999999</ele><time>2026-04-02T14:58:45Z</time></trkpt><trkpt lat="44.12276267608114" lon="3.4067671521547003"><ele>962.0</ele><time>2026-04-02T14:58:47Z</time></trkpt><trkpt lat="44.1227896418541" lon="3.4068888137338176"><ele>961.0</ele><time>2026-04-02T14:58:49Z</time></trkpt><trkpt lat="44.122763281568965" lon="3.407063455797261"><ele>960.3333333333333</ele><time>2026-04-02T14:58:51Z</time></trkpt><trkpt lat="44.12274698976725" lon="3.407198098446239"><ele>959.6666666666666</ele><time>2026-04-02T14:58:53Z</time></trkpt><trkpt lat="44.12272308140417" lon="3.4072924870176604"><ele>959.0</ele><time>2026-04-02T14:58:55Z</time></trkpt><trkpt lat="44.12269218580949" lon="3.4073804350438395"><ele>958.3333333333333</ele><time>2026-04-02T14:58:57Z</time></trkpt><trkpt lat="44.12265391690057" lon="3.4074600167013993"><ele>957.6666666666666</ele><time>2026-04-02T14:58:59Z</time></trkpt><trkpt lat="44.122616738050404" lon="3.4075851089065066"><ele>957.0</ele><time>2026-04-02T14:59:01Z</time></trkpt><trkpt lat="44.12257294542636" lon="3.4077130169448653"><ele>957.0</ele><time>2026-04-02T14:59:03Z</time></trkpt><trkpt lat="44.12252227918188" lon="3.407820351696322"><ele>957.0</ele><time>2026-04-02T14:59:05Z</time></trkpt><trkpt lat="44.1225160704178" lon="3.407913134904882"><ele>957.0</ele><time>2026-04-02T14:59:07Z</time></trkpt><trkpt lat="44.122553632009115" lon="3.40798676946653"><ele>957.0</ele><time>2026-04-02T14:59:09Z</time></trkpt><trkpt lat="44.122616448689726" lon="3.4080091761189077"><ele>957.0</ele><time>2026-04-02T14:59:11Z</time></trkpt><trkpt lat="44.12270000510395" lon="3.4080032102671507"><ele>957.0</ele><time>2026-04-02T14:59:13Z</time></trkpt><trkpt lat="44.12276469703385" lon="3.4079441095358938"><ele>957.0</ele><time>2026-04-02T14:59:15Z</time></trkpt><trkpt lat="44.12280564983405" lon="3.4078155221509054"><ele>957.0</ele><time>2026-04-02T14:59:17Z</time></trkpt><trkpt lat="44.12282125478277" lon="3.4076407347566264"><ele>957.0</ele><time>2026-04-02T14:59:19Z</time></trkpt><trkpt lat="44.12281163388575" lon="3.407545554785171"><ele>957.0</ele><time>2026-04-02T14:59:20Z</time></trkpt><trkpt lat="44.122796069894996" lon="3.407439986434686"><ele>957.0</ele><time>2026-04-02T14:59:21Z</time></trkpt><trkpt lat="44.12284569392149" lon="3.4073053063836025"><ele>957.0</ele><time>2026-04-02T14:59:23Z</time></trkpt><trkpt lat="44.12284406561348" lon="3.4071850782550377"><ele>957.0</ele><time>2026-04-02T14:59:25Z</time></trkpt><trkpt lat="44.12281132649029" lon="3.407019265553395"><ele>957.0</ele><time>2026-04-02T14:59:27Z</time></trkpt><trkpt lat="44.1228148202527" lon="3.40693046918428"><ele>957.0</ele><time>2026-04-02T14:59:28Z</time></trkpt><trkpt lat="44.122843787165976" lon="3.406752399608751"><ele>957.0</ele><time>2026-04-02T14:59:30Z</time></trkpt><trkpt lat="44.122892549434646" lon="3.4066653800361073"><ele>957.8</ele><time>2026-04-02T14:59:32Z</time></trkpt><trkpt lat="44.12296799361218" lon="3.40666008235095"><ele>958.6</ele><time>2026-04-02T14:59:34Z</time></trkpt><trkpt lat="44.123053492626305" lon="3.4067019863081778"><ele>959.3999999999999</ele><time>2026-04-02T14:59:36Z</time></trkpt><trkpt lat="44.12312898690244" lon="3.4067617907156387"><ele>960.1999999999999</ele><time>2026-04-02T14:59:38Z</time></trkpt><trkpt lat="44.123221916370895" lon="3.406797698055887"><ele>961.0</ele><time>2026-04-02T14:59:40Z</time></trkpt><trkpt lat="44.12331446550775" lon="3.4068574353155214"><ele>960.4</ele><time>2026-04-02T14:59:42Z</time></trkpt><trkpt lat="44.12340713549038" lon="3.4069779755714054"><ele>959.8</ele><time>2026-04-02T14:59:44Z</time></trkpt><trkpt lat="44.12347021354241" lon="3.4070598661708242"><ele>959.1999999999999</ele><time>2026-04-02T14:59:45Z</time></trkpt><trkpt lat="44.123534650084494" lon="3.407141447941261"><ele>958.5999999999999</ele><time>2026-04-02T14:59:46Z</time></trkpt><trkpt lat="44.12360229656102" lon="3.407217275213558"><ele>958.0</ele><time>2026-04-02T14:59:47Z</time></trkpt><trkpt lat="44.12365787527957" lon="3.4072902705884545"><ele>957.9999999999999</ele><time>2026-04-02T14:59:48Z</time></trkpt><trkpt lat="44.12372578031475" lon="3.4073625290983407"><ele>958.0</ele><time>2026-04-02T14:59:49Z</time></trkpt><trkpt lat="44.12379497603926" lon="3.4074263735003956"><ele>958.0</ele><time>2026-04-02T14:59:50Z</time></trkpt><trkpt lat="44.12385810080435" lon="3.4074932230614245"><ele>958.0</ele><time>2026-04-02T14:59:51Z</time></trkpt><trkpt lat="44.12392159749639" lon="3.4075731357273615"><ele>957.9999999999999</ele><time>2026-04-02T14:59:52Z</time></trkpt><trkpt lat="44.123971619087484" lon="3.40764903030758"><ele>958.0</ele><time>2026-04-02T14:59:53Z</time></trkpt><trkpt lat="44.12401270337922" lon="3.407720147843573"><ele>957.6666666666666</ele><time>2026-04-02T14:59:54Z</time></trkpt><trkpt lat="44.124063445748" lon="3.4078056252258526"><ele>957.3333333333333</ele><time>2026-04-02T14:59:55Z</time></trkpt><trkpt lat="44.12410667252075" lon="3.407873464291879"><ele>957.0</ele><time>2026-04-02T14:59:56Z</time></trkpt><trkpt lat="44.1241453286471" lon="3.4079431092430905"><ele>956.6666666666667</ele><time>2026-04-02T14:59:57Z</time></trkpt><trkpt lat="44.12418391153977" lon="3.4080187927011134"><ele>956.3333333333334</ele><time>2026-04-02T14:59:58Z</time></trkpt><trkpt lat="44.12424262553625" lon="3.4081468758950066"><ele>956.0</ele><time>2026-04-02T15:00:00Z</time></trkpt><trkpt lat="44.124302270921866" lon="3.408276744740904"><ele>956.0</ele><time>2026-04-02T15:00:02Z</time></trkpt><trkpt lat="44.12435129987661" lon="3.4084018458315946"><ele>955.9999999999999</ele><time>2026-04-02T15:00:04Z</time></trkpt><trkpt lat="44.12439550211429" lon="3.408518706584753"><ele>955.9999999999999</ele><time>2026-04-02T15:00:06Z</time></trkpt><trkpt lat="44.12444392951159" lon="3.408633909548159"><ele>956.0</ele><time>2026-04-02T15:00:08Z</time></trkpt><trkpt lat="44.12450599518553" lon="3.408749531201129"><ele>956.0</ele><time>2026-04-02T15:00:10Z</time></trkpt><trkpt lat="44.12455208116004" lon="3.4088372309522166"><ele>953.8333333333334</ele><time>2026-04-02T15:00:12Z</time></trkpt><trkpt lat="44.124614218485576" lon="3.408939214016752"><ele>951.6666666666667</ele><time>2026-04-02T15:00:14Z</time></trkpt><trkpt lat="44.12461754447293" lon="3.4090380964061575"><ele>949.5</ele><time>2026-04-02T15:00:16Z</time></trkpt><trkpt lat="44.12455221707437" lon="3.40912250909128"><ele>947.3333333333333</ele><time>2026-04-02T15:00:19Z</time></trkpt><trkpt lat="44.124488045243936" lon="3.4091972537189674"><ele>945.1666666666666</ele><time>2026-04-02T15:00:21Z</time></trkpt><trkpt lat="44.124436068407284" lon="3.409314834100147"><ele>943.0</ele><time>2026-04-02T15:00:23Z</time></trkpt><trkpt lat="44.12440093798082" lon="3.40945232842917"><ele>943.0</ele><time>2026-04-02T15:00:25Z</time></trkpt><trkpt lat="44.124380415713375" lon="3.409599473641233"><ele>943.0</ele><time>2026-04-02T15:00:27Z</time></trkpt><trkpt lat="44.124363909131645" lon="3.40974454186967"><ele>943.0</ele><time>2026-04-02T15:00:29Z</time></trkpt><trkpt lat="44.12434140195964" lon="3.409891185476843"><ele>943.0</ele><time>2026-04-02T15:00:31Z</time></trkpt><trkpt lat="44.12430248056452" lon="3.410048925905056"><ele>943.0</ele><time>2026-04-02T15:00:33Z</time></trkpt><trkpt lat="44.12426103092854" lon="3.410195229599748"><ele>942.4285714285714</ele><time>2026-04-02T15:00:35Z</time></trkpt><trkpt lat="44.12423055967945" lon="3.4102864724767317"><ele>941.8571428571429</ele><time>2026-04-02T15:00:36Z</time></trkpt><trkpt lat="44.124196714884384" lon="3.4104060816121198"><ele>941.2857142857143</ele><time>2026-04-02T15:00:37Z</time></trkpt><trkpt lat="44.124179153127685" lon="3.410508271335325"><ele>940.7142857142858</ele><time>2026-04-02T15:00:38Z</time></trkpt><trkpt lat="44.12415984375843" lon="3.410592673564716"><ele>940.1428571428571</ele><time>2026-04-02T15:00:39Z</time></trkpt><trkpt lat="44.12414497569041" lon="3.4106779231733486"><ele>939.5714285714287</ele><time>2026-04-02T15:00:40Z</time></trkpt><trkpt lat="44.12412245591384" lon="3.410773923376758"><ele>939.0</ele><time>2026-04-02T15:00:42Z</time></trkpt><trkpt lat="44.12407034556378" lon="3.410882016786867"><ele>936.6</ele><time>2026-04-02T15:00:45Z</time></trkpt><trkpt lat="44.12401248312227" lon="3.410934616986922"><ele>934.2</ele><time>2026-04-02T15:00:47Z</time></trkpt><trkpt lat="44.1239472366569" lon="3.411025433124569"><ele>931.8000000000001</ele><time>2026-04-02T15:00:49Z</time></trkpt><trkpt lat="44.12386494161942" lon="3.4111179327633736"><ele>929.4000000000001</ele><time>2026-04-02T15:00:51Z</time></trkpt><trkpt lat="44.123774404924546" lon="3.41120517712166"><ele>927.0</ele><time>2026-04-02T15:00:53Z</time></trkpt><trkpt lat="44.12368921588597" lon="3.411291748621889"><ele>930.4000000000001</ele><time>2026-04-02T15:00:55Z</time></trkpt><trkpt lat="44.12359075260248" lon="3.4113828945721254"><ele>933.8000000000001</ele><time>2026-04-02T15:00:57Z</time></trkpt><trkpt lat="44.123534539712445" lon="3.411437901466794"><ele>937.2</ele><time>2026-04-02T15:00:58Z</time></trkpt><trkpt lat="44.12343842254925" lon="3.4115257689820453"><ele>940.6</ele><time>2026-04-02T15:01:00Z</time></trkpt><trkpt lat="44.12335879504934" lon="3.4116134971533256"><ele>944.0</ele><time>2026-04-02T15:01:02Z</time></trkpt><trkpt lat="44.12326956502899" lon="3.411719381762262"><ele>942.0</ele><time>2026-04-02T15:01:04Z</time></trkpt><trkpt lat="44.123183547776684" lon="3.4118101454237655"><ele>940.0000000000001</ele><time>2026-04-02T15:01:06Z</time></trkpt><trkpt lat="44.12308486306315" lon="3.4119093930396427"><ele>938.0000000000001</ele><time>2026-04-02T15:01:08Z</time></trkpt><trkpt lat="44.123030402616294" lon="3.4119576142201886"><ele>936.0</ele><time>2026-04-02T15:01:09Z</time></trkpt><trkpt lat="44.1229817540483" lon="3.41201400262231"><ele>934.0</ele><time>2026-04-02T15:01:10Z</time></trkpt><trkpt lat="44.12289301725246" lon="3.412141345864847"><ele>935.8571428571427</ele><time>2026-04-02T15:01:12Z</time></trkpt><trkpt lat="44.12284451480552" lon="3.41221459573516"><ele>937.7142857142857</ele><time>2026-04-02T15:01:13Z</time></trkpt><trkpt lat="44.122782960715575" lon="3.4122838785895646"><ele>939.5714285714284</ele><time>2026-04-02T15:01:14Z</time></trkpt><trkpt lat="44.12272376072307" lon="3.4123431795847092"><ele>941.4285714285713</ele><time>2026-04-02T15:01:15Z</time></trkpt><trkpt lat="44.122670892344956" lon="3.412392768310958"><ele>943.2857142857142</ele><time>2026-04-02T15:01:16Z</time></trkpt><trkpt lat="44.122596677052435" lon="3.412461403614044"><ele>945.1428571428571</ele><time>2026-04-02T15:01:18Z</time></trkpt><trkpt lat="44.122531746815206" lon="3.4124965059979826"><ele>947.0</ele><time>2026-04-02T15:01:20Z</time></trkpt><trkpt lat="44.12247016632256" lon="3.412572380770451"><ele>947.0000000000001</ele><time>2026-04-02T15:01:23Z</time></trkpt><trkpt lat="44.122533469620755" lon="3.4125501625495924"><ele>947.0</ele><time>2026-04-02T15:01:33Z</time></trkpt><trkpt lat="44.122579642400225" lon="3.4124318526075412"><ele>947.0</ele><time>2026-04-02T15:01:36Z</time></trkpt><trkpt lat="44.122613079575366" lon="3.4123493601769606"><ele>947.0</ele><time>2026-04-02T15:01:38Z</time></trkpt><trkpt lat="44.12266192243903" lon="3.4122754955481773"><ele>947.0000000000001</ele><time>2026-04-02T15:01:41Z</time></trkpt><trkpt lat="44.12272482154504" lon="3.412360776564163"><ele>947.0</ele><time>2026-04-02T15:04:09Z</time></trkpt><trkpt lat="44.122680841393674" lon="3.412292744957231"><ele>947.0</ele><time>2026-04-02T15:04:43Z</time></trkpt><trkpt lat="44.122617535620286" lon="3.41233017231695"><ele>946.9999999999999</ele><time>2026-04-02T15:23:38Z</time></trkpt><trkpt lat="44.12258716341182" lon="3.4124234360698233"><ele>947.0</ele><time>2026-04-02T15:23:45Z</time></trkpt><trkpt lat="44.12253722699468" lon="3.4124839669521356"><ele>947.0</ele><time>2026-04-02T15:23:52Z</time></trkpt><trkpt lat="44.12259410912246" lon="3.412444665381697"><ele>946.9999999999999</ele><time>2026-04-02T15:24:01Z</time></trkpt><trkpt lat="44.12262836545644" lon="3.4123660125710913"><ele>947.0</ele><time>2026-04-02T15:24:08Z</time></trkpt><trkpt lat="44.12265194488546" lon="3.41227649897641"><ele>947.0</ele><time>2026-04-02T15:24:15Z</time></trkpt><trkpt lat="44.12259194167351" lon="3.4121900207045286"><ele>947.0</ele><time>2026-04-02T15:42:00Z</time></trkpt><trkpt lat="44.12264449833383" lon="3.4122488008750635"><ele>946.9999999999999</ele><time>2026-04-02T15:42:09Z</time></trkpt><trkpt lat="44.1226604043913" lon="3.412338514981432"><ele>947.0</ele><time>2026-04-02T15:42:36Z</time></trkpt><trkpt lat="44.12263629269756" lon="3.412245041604615"><ele>947.0</ele><time>2026-04-02T15:42:41Z</time></trkpt><trkpt lat="44.122712735782876" lon="3.412270948923735"><ele>946.9999999999999</ele><time>2026-04-02T16:19:50Z</time></trkpt><trkpt lat="44.12267063566446" lon="3.412193932883244"><ele>947.0</ele><time>2026-04-02T16:23:16Z</time></trkpt><trkpt lat="44.122671916987656" lon="3.412299240318804"><ele>947.0</ele><time>2026-04-02T16:25:43Z</time></trkpt><trkpt lat="44.12271032438793" lon="3.412172823683368"><ele>947.0</ele><time>2026-04-02T16:28:48Z</time></trkpt><trkpt lat="44.12265810731369" lon="3.412236311966992"><ele>946.9999999999999</ele><time>2026-04-02T16:30:05Z</time></trkpt><trkpt lat="44.122701539733335" lon="3.412305638120888"><ele>947.0</ele><time>2026-04-02T16:30:12Z</time></trkpt><trkpt lat="44.12276218570681" lon="3.4123484995989353"><ele>947.0</ele><time>2026-04-02T16:30:21Z</time></trkpt><trkpt lat="44.122696170170535" lon="3.4123396508817243"><ele>946.9999999999999</ele><time>2026-04-02T16:31:06Z</time></trkpt><trkpt lat="44.12270573516536" lon="3.4122292246762513"><ele>947.0</ele><time>2026-04-02T16:31:19Z</time></trkpt><trkpt lat="44.12273651203861" lon="3.4123061114357203"><ele>947.0</ele><time>2026-04-02T16:32:58Z</time></trkpt><trkpt lat="44.1227792367914" lon="3.4123773900397776"><ele>947.0</ele><time>2026-04-02T16:33:05Z</time></trkpt><trkpt lat="44.12272865268848" lon="3.412298458451271"><ele>946.9999999999999</ele><time>2026-04-02T16:33:20Z</time></trkpt><trkpt lat="44.122667322052" lon="3.412260057090066"><ele>947.0</ele><time>2026-04-02T17:05:03Z</time></trkpt><trkpt lat="44.1226171951487" lon="3.4121940159241926"><ele>947.0</ele><time>2026-04-02T17:38:27Z</time></trkpt><trkpt lat="44.1225734023712" lon="3.412126071529421"><ele>946.9999999999999</ele><time>2026-04-02T17:38:36Z</time></trkpt><trkpt lat="44.122507868131734" lon="3.412139259044858"><ele>947.0</ele><time>2026-04-02T17:38:42Z</time></trkpt><trkpt lat="44.1224449101848" lon="3.412105553230887"><ele>947.0</ele><time>2026-04-02T17:39:06Z</time></trkpt><trkpt lat="44.12250511870949" lon="3.412151936242136"><ele>947.0</ele><time>2026-04-02T17:41:37Z</time></trkpt><trkpt lat="44.122573805028715" lon="3.412147420529211"><ele>946.9999999999999</ele><time>2026-04-02T17:41:44Z</time></trkpt><trkpt lat="44.12263908421261" lon="3.4121839197646295"><ele>947.0</ele><time>2026-04-02T17:42:24Z</time></trkpt><trkpt lat="44.1226480604873" lon="3.412283747365768"><ele>947.0</ele><time>2026-04-02T17:50:01Z</time></trkpt><trkpt lat="44.1226899186876" lon="3.4123509597398884"><ele>946.9999999999999</ele><time>2026-04-02T17:50:10Z</time></trkpt><trkpt lat="44.12267791770256" lon="3.4122435147925487"><ele>947.0</ele><time>2026-04-02T17:51:05Z</time></trkpt><trkpt lat="44.12261531312925" lon="3.41225289770853"><ele>947.0</ele><time>2026-04-02T18:21:17Z</time></trkpt><trkpt lat="44.122549440519165" lon="3.412336668567979"><ele>947.0</ele><time>2026-04-02T18:21:58Z</time></trkpt><trkpt lat="44.12261206219916" lon="3.4122918131938"><ele>947.0</ele><time>2026-04-02T18:22:11Z</time></trkpt><trkpt lat="44.12266193105341" lon="3.4122322170856103"><ele>947.0</ele><time>2026-04-02T18:22:17Z</time></trkpt></trkseg><trkseg><trkpt lat="44.12269698875562" lon="3.4122806645310324"><ele>947.0000000000001</ele><time>2026-04-03T05:04:37Z</time></trkpt><trkpt lat="44.12263284360716" lon="3.412270822902952"><ele>947.0</ele><time>2026-04-03T05:25:30Z</time></trkpt><trkpt lat="44.12260072766443" lon="3.412368983410117"><ele>947.0</ele><time>2026-04-03T05:25:33Z</time></trkpt><trkpt lat="44.122554489206955" lon="3.4125006492796244"><ele>947.0</ele><time>2026-04-03T05:25:36Z</time></trkpt><trkpt lat="44.12257279877933" lon="3.4125898191848476"><ele>947.0000000000001</ele><time>2026-04-03T05:25:40Z</time></trkpt><trkpt lat="44.12262156702678" lon="3.412674168539915"><ele>947.0</ele><time>2026-04-03T05:25:46Z</time></trkpt><trkpt lat="44.122647136409554" lon="3.4127588954065704"><ele>947.0</ele><time>2026-04-03T05:25:51Z</time></trkpt><trkpt lat="44.12264667212984" lon="3.4128580578705523"><ele>946.9999999999999</ele><time>2026-04-03T05:26:02Z</time></trkpt><trkpt lat="44.122664217888016" lon="3.4129529345303595"><ele>947.0</ele><time>2026-04-03T05:26:08Z</time></trkpt><trkpt lat="44.12267498600175" lon="3.4130587349441677"><ele>947.0</ele><time>2026-04-03T05:26:24Z</time></trkpt><trkpt lat="44.122665421698464" lon="3.4131516285255423"><ele>946.9999999999999</ele><time>2026-04-03T05:26:32Z</time></trkpt><trkpt lat="44.12264093819799" lon="3.4132327903055284"><ele>947.0</ele><time>2026-04-03T05:26:40Z</time></trkpt><trkpt lat="44.122622147040644" lon="3.41332206975014"><ele>947.0</ele><time>2026-04-03T05:28:47Z</time></trkpt><trkpt lat="44.12260143740249" lon="3.413409440599496"><ele>946.4285714285713</ele><time>2026-04-03T05:28:55Z</time></trkpt><trkpt lat="44.122578280681765" lon="3.4134935120442718"><ele>945.8571428571428</ele><time>2026-04-03T05:29:02Z</time></trkpt><trkpt lat="44.122583124810255" lon="3.4135818527747075"><ele>945.2857142857142</ele><time>2026-04-03T05:29:16Z</time></trkpt><trkpt lat="44.12257399103299" lon="3.413670622797528"><ele>944.7142857142858</ele><time>2026-04-03T05:29:22Z</time></trkpt><trkpt lat="44.122549336473675" lon="3.413752748490274"><ele>944.1428571428572</ele><time>2026-04-03T05:29:51Z</time></trkpt><trkpt lat="44.12252177518937" lon="3.4138331232725387"><ele>943.5714285714287</ele><time>2026-04-03T05:30:09Z</time></trkpt><trkpt lat="44.12245406684795" lon="3.413850408782659"><ele>943.0</ele><time>2026-04-03T05:30:18Z</time></trkpt><trkpt lat="44.122363537545084" lon="3.4139069270500753"><ele>942.7142857142858</ele><time>2026-04-03T05:31:04Z</time></trkpt><trkpt lat="44.12243287824154" lon="3.413851538742485"><ele>942.4285714285716</ele><time>2026-04-03T05:34:03Z</time></trkpt><trkpt lat="44.12248466291268" lon="3.4137876975634933"><ele>942.1428571428571</ele><time>2026-04-03T05:34:15Z</time></trkpt><trkpt lat="44.122508235520115" lon="3.413697391163626"><ele>941.8571428571429</ele><time>2026-04-03T05:34:24Z</time></trkpt><trkpt lat="44.12254096188656" lon="3.4136067702328416"><ele>941.5714285714286</ele><time>2026-04-03T05:34:33Z</time></trkpt><trkpt lat="44.122536942455376" lon="3.4135140981906456"><ele>941.2857142857142</ele><time>2026-04-03T05:34:40Z</time></trkpt><trkpt lat="44.12250735069964" lon="3.4134203799314493"><ele>940.9999999999999</ele><time>2026-04-03T05:34:45Z</time></trkpt><trkpt lat="44.122471333586034" lon="3.4133232450835913"><ele>940.8571428571427</ele><time>2026-04-03T05:34:51Z</time></trkpt><trkpt lat="44.12241742623778" lon="3.413261834455264"><ele>940.7142857142857</ele><time>2026-04-03T05:34:56Z</time></trkpt><trkpt lat="44.122382209068206" lon="3.413172096227788"><ele>940.5714285714284</ele><time>2026-04-03T05:35:03Z</time></trkpt><trkpt lat="44.12234725863686" lon="3.4130901544004897"><ele>940.4285714285713</ele><time>2026-04-03T05:35:08Z</time></trkpt><trkpt lat="44.12234389793786" lon="3.413001560017211"><ele>940.2857142857142</ele><time>2026-04-03T05:35:14Z</time></trkpt><trkpt lat="44.12232622270463" lon="3.41290659286069"><ele>940.1428571428571</ele><time>2026-04-03T05:35:21Z</time></trkpt><trkpt lat="44.12235863104102" lon="3.412827009502964"><ele>940.0</ele><time>2026-04-03T05:35:29Z</time></trkpt><trkpt lat="44.122403244098905" lon="3.4127625422320143"><ele>941.0</ele><time>2026-04-03T05:35:36Z</time></trkpt><trkpt lat="44.12245079651639" lon="3.4126949673830436"><ele>941.9999999999999</ele><time>2026-04-03T05:35:43Z</time></trkpt><trkpt lat="44.122499371621906" lon="3.412613798180753"><ele>943.0</ele><time>2026-04-03T05:35:49Z</time></trkpt><trkpt lat="44.122555956408334" lon="3.4125406339134337"><ele>944.0</ele><time>2026-04-03T05:35:55Z</time></trkpt><trkpt lat="44.1226044058916" lon="3.4124764044961347"><ele>944.9999999999999</ele><time>2026-04-03T05:36:00Z</time></trkpt><trkpt lat="44.12264834506761" lon="3.4124087434763046"><ele>946.0</ele><time>2026-04-03T05:36:14Z</time></trkpt><trkpt lat="44.122701730285314" lon="3.4123489017973125"><ele>947.0</ele><time>2026-04-03T05:36:26Z</time></trkpt><trkpt lat="44.12266600406281" lon="3.412265319120403"><ele>947.0000000000001</ele><time>2026-04-03T05:48:11Z</time></trkpt><trkpt lat="44.122729640298886" lon="3.412233652380374"><ele>947.0</ele><time>2026-04-03T05:50:15Z</time></trkpt><trkpt lat="44.12281000835555" lon="3.4122028970717784"><ele>947.0</ele><time>2026-04-03T05:50:18Z</time></trkpt><trkpt lat="44.122879305192086" lon="3.4121010871782085"><ele>947.0</ele><time>2026-04-03T05:50:20Z</time></trkpt><trkpt lat="44.12292990593328" lon="3.4120415033990166"><ele>947.0000000000001</ele><time>2026-04-03T05:50:22Z</time></trkpt><trkpt lat="44.12297788645267" lon="3.4119813046139704"><ele>947.0</ele><time>2026-04-03T05:50:24Z</time></trkpt><trkpt lat="44.12304189735629" lon="3.41190906014959"><ele>946.5000000000001</ele><time>2026-04-03T05:50:26Z</time></trkpt><trkpt lat="44.123144896359335" lon="3.4118110726317483"><ele>946.0</ele><time>2026-04-03T05:50:28Z</time></trkpt><trkpt lat="44.1232020719317" lon="3.4117554030668504"><ele>945.5</ele><time>2026-04-03T05:50:29Z</time></trkpt><trkpt lat="44.12326442305788" lon="3.411694260383471"><ele>945.0</ele><time>2026-04-03T05:50:30Z</time></trkpt><trkpt lat="44.123327893714084" lon="3.4116215403446195"><ele>944.5000000000001</ele><time>2026-04-03T05:50:31Z</time></trkpt><trkpt lat="44.123383729002455" lon="3.411556270563558"><ele>944.0</ele><time>2026-04-03T05:50:32Z</time></trkpt><trkpt lat="44.12343904023642" lon="3.411495660083346"><ele>944.0</ele><time>2026-04-03T05:50:33Z</time></trkpt><trkpt lat="44.123530885949215" lon="3.411405963080171"><ele>944.0000000000001</ele><time>2026-04-03T05:50:35Z</time></trkpt><trkpt lat="44.123618383023796" lon="3.411333344229968"><ele>944.0000000000001</ele><time>2026-04-03T05:50:37Z</time></trkpt><trkpt lat="44.12371569497408" lon="3.411215071039871"><ele>944.0</ele><time>2026-04-03T05:50:39Z</time></trkpt><trkpt lat="44.123788458337984" lon="3.411153276616846"><ele>944.0</ele><time>2026-04-03T05:50:41Z</time></trkpt><trkpt lat="44.12386541770614" lon="3.4110823942348154"><ele>943.1666666666667</ele><time>2026-04-03T05:50:43Z</time></trkpt><trkpt lat="44.123927970916846" lon="3.4110172442297633"><ele>942.3333333333334</ele><time>2026-04-03T05:50:45Z</time></trkpt><trkpt lat="44.12398719953337" lon="3.41092279563513"><ele>941.5</ele><time>2026-04-03T05:50:47Z</time></trkpt><trkpt lat="44.12404294167538" lon="3.4108166300003186"><ele>940.6666666666667</ele><time>2026-04-03T05:50:50Z</time></trkpt><trkpt lat="44.12410702437951" lon="3.410838211985822"><ele>939.8333333333334</ele><time>2026-04-03T05:50:53Z</time></trkpt><trkpt lat="44.124154277877444" lon="3.4109418224525943"><ele>939.0</ele><time>2026-04-03T05:50:55Z</time></trkpt><trkpt lat="44.12416938541072" lon="3.411034191680034"><ele>939.0</ele><time>2026-04-03T05:50:56Z</time></trkpt><trkpt lat="44.12418766347335" lon="3.4111219039675102"><ele>939.0</ele><time>2026-04-03T05:50:57Z</time></trkpt><trkpt lat="44.124191497403835" lon="3.411234099190179"><ele>939.0</ele><time>2026-04-03T05:50:58Z</time></trkpt><trkpt lat="44.12421040147775" lon="3.4113589821808823"><ele>939.0</ele><time>2026-04-03T05:50:59Z</time></trkpt><trkpt lat="44.124228394923094" lon="3.4114839815548836"><ele>939.0</ele><time>2026-04-03T05:51:00Z</time></trkpt><trkpt lat="44.124226805252036" lon="3.411578479939693"><ele>939.0</ele><time>2026-04-03T05:51:01Z</time></trkpt><trkpt lat="44.124237527513515" lon="3.411668451049209"><ele>938.4000000000001</ele><time>2026-04-03T05:51:02Z</time></trkpt><trkpt lat="44.124248622112184" lon="3.4117595519085384"><ele>937.8000000000001</ele><time>2026-04-03T05:51:03Z</time></trkpt><trkpt lat="44.124242147521876" lon="3.411925596429857"><ele>937.1999999999999</ele><time>2026-04-03T05:51:05Z</time></trkpt><trkpt lat="44.1242463918589" lon="3.4120368351849546"><ele>936.5999999999999</ele><time>2026-04-03T05:51:06Z</time></trkpt><trkpt lat="44.124254259639464" lon="3.4121581623997543"><ele>936.0</ele><time>2026-04-03T05:51:07Z</time></trkpt><trkpt lat="44.1241904990886" lon="3.4122874753542742"><ele>937.5714285714287</ele><time>2026-04-03T05:51:09Z</time></trkpt><trkpt lat="44.12416752899858" lon="3.412391062914849"><ele>939.1428571428572</ele><time>2026-04-03T05:51:10Z</time></trkpt><trkpt lat="44.12415099143953" lon="3.4124816979440067"><ele>940.7142857142858</ele><time>2026-04-03T05:51:11Z</time></trkpt><trkpt lat="44.12412432679712" lon="3.41257758772761"><ele>942.2857142857142</ele><time>2026-04-03T05:51:12Z</time></trkpt><trkpt lat="44.12409672638513" lon="3.4126666494692772"><ele>943.8571428571428</ele><time>2026-04-03T05:51:13Z</time></trkpt><trkpt lat="44.12407288141308" lon="3.4127497425347304"><ele>945.4285714285713</ele><time>2026-04-03T05:51:14Z</time></trkpt><trkpt lat="44.12404058606184" lon="3.412839300937727"><ele>947.0</ele><time>2026-04-03T05:51:15Z</time></trkpt><trkpt lat="44.12401327759458" lon="3.412931798592568"><ele>944.8</ele><time>2026-04-03T05:51:16Z</time></trkpt><trkpt lat="44.1239530775304" lon="3.4130957732243083"><ele>942.6</ele><time>2026-04-03T05:51:18Z</time></trkpt><trkpt lat="44.123910935571104" lon="3.413173396618775"><ele>940.3999999999999</ele><time>2026-04-03T05:51:19Z</time></trkpt><trkpt lat="44.1238685442598" lon="3.4132559723744937"><ele>938.1999999999999</ele><time>2026-04-03T05:51:20Z</time></trkpt><trkpt lat="44.12383230179903" lon="3.4133302559643606"><ele>936.0</ele><time>2026-04-03T05:51:21Z</time></trkpt><trkpt lat="44.12375044273564" lon="3.413481283263323"><ele>936.0</ele><time>2026-04-03T05:51:23Z</time></trkpt><trkpt lat="44.12372252189664" lon="3.413587956543691"><ele>936.0</ele><time>2026-04-03T05:51:24Z</time></trkpt><trkpt lat="44.12369455713935" lon="3.41369019202883"><ele>936.0</ele><time>2026-04-03T05:51:25Z</time></trkpt><trkpt lat="44.123666764857745" lon="3.4137888806957557"><ele>936.0</ele><time>2026-04-03T05:51:26Z</time></trkpt><trkpt lat="44.123637595185116" lon="3.413907273959131"><ele>936.0</ele><time>2026-04-03T05:51:27Z</time></trkpt><trkpt lat="44.123601317935446" lon="3.414005391020907"><ele>936.0</ele><time>2026-04-03T05:51:28Z</time></trkpt><trkpt lat="44.12357648812181" lon="3.414109749044209"><ele>933.1666666666666</ele><time>2026-04-03T05:51:29Z</time></trkpt><trkpt lat="44.123517184826824" lon="3.41427469906972"><ele>930.3333333333333</ele><time>2026-04-03T05:51:31Z</time></trkpt><trkpt lat="44.1234846067205" lon="3.414369619150106"><ele>927.5</ele><time>2026-04-03T05:51:32Z</time></trkpt><trkpt lat="44.12345815983884" lon="3.4144750297527406"><ele>924.6666666666666</ele><time>2026-04-03T05:51:33Z</time></trkpt><trkpt lat="44.12342244045655" lon="3.41456171316978"><ele>921.8333333333333</ele><time>2026-04-03T05:51:34Z</time></trkpt><trkpt lat="44.123391098436635" lon="3.414656068432423"><ele>919.0</ele><time>2026-04-03T05:51:35Z</time></trkpt><trkpt lat="44.123324607931536" lon="3.414812025333263"><ele>916.6</ele><time>2026-04-03T05:51:37Z</time></trkpt><trkpt lat="44.12329066383622" lon="3.4148905306698625"><ele>914.2</ele><time>2026-04-03T05:51:38Z</time></trkpt><trkpt lat="44.123215605884155" lon="3.4150264741028664"><ele>911.8000000000001</ele><time>2026-04-03T05:51:40Z</time></trkpt><trkpt lat="44.123180832298644" lon="3.415102007336322"><ele>909.4000000000001</ele><time>2026-04-03T05:51:41Z</time></trkpt><trkpt lat="44.12310276948302" lon="3.4152294798660567"><ele>907.0</ele><time>2026-04-03T05:51:43Z</time></trkpt><trkpt lat="44.123015685747134" lon="3.4153379689945798"><ele>906.9999999999999</ele><time>2026-04-03T05:51:45Z</time></trkpt><trkpt lat="44.122967178793935" lon="3.4154112442071094"><ele>907.0</ele><time>2026-04-03T05:51:46Z</time></trkpt><trkpt lat="44.1229130530716" lon="3.415497001806835"><ele>907.0</ele><time>2026-04-03T05:51:47Z</time></trkpt><trkpt lat="44.12280537171429" lon="3.415529914982522"><ele>907.0</ele><time>2026-04-03T05:51:49Z</time></trkpt><trkpt lat="44.12271804482045" lon="3.4155266374190614"><ele>906.9999999999999</ele><time>2026-04-03T05:51:51Z</time></trkpt><trkpt lat="44.1226256218219" lon="3.415529617970826"><ele>907.0</ele><time>2026-04-03T05:51:53Z</time></trkpt><trkpt lat="44.122561407549846" lon="3.4155424606088105"><ele>902.6666666666666</ele><time>2026-04-03T05:51:55Z</time></trkpt><trkpt lat="44.1224908883241" lon="3.4155704395696724"><ele>898.3333333333333</ele><time>2026-04-03T05:51:58Z</time></trkpt><trkpt lat="44.12242421588311" lon="3.415577732282821"><ele>894.0</ele><time>2026-04-03T05:53:27Z</time></trkpt><trkpt lat="44.12233738719127" lon="3.4155719587276003"><ele>889.6666666666667</ele><time>2026-04-03T05:53:29Z</time></trkpt><trkpt lat="44.12223753973132" lon="3.415563265777765"><ele>885.3333333333334</ele><time>2026-04-03T05:53:31Z</time></trkpt><trkpt lat="44.12213306037706" lon="3.4155481900328777"><ele>881.0</ele><time>2026-04-03T05:53:33Z</time></trkpt><trkpt lat="44.122011038157865" lon="3.415561387049799"><ele>881.0</ele><time>2026-04-03T05:53:35Z</time></trkpt><trkpt lat="44.12188945811188" lon="3.41561517016119"><ele>881.0</ele><time>2026-04-03T05:53:37Z</time></trkpt><trkpt lat="44.12181853008445" lon="3.41568280699162"><ele>881.0</ele><time>2026-04-03T05:53:39Z</time></trkpt><trkpt lat="44.12173811318901" lon="3.4158155891188744"><ele>881.0</ele><time>2026-04-03T05:53:41Z</time></trkpt><trkpt lat="44.1216642131027" lon="3.4159401712092072"><ele>881.0</ele><time>2026-04-03T05:53:43Z</time></trkpt><trkpt lat="44.12162036548144" lon="3.416074990360489"><ele>880.9999999999999</ele><time>2026-04-03T05:53:45Z</time></trkpt><trkpt lat="44.12159256908923" lon="3.4161557811091017"><ele>880.9999999999999</ele><time>2026-04-03T05:53:46Z</time></trkpt><trkpt lat="44.12159510408756" lon="3.4163208299491683"><ele>881.0</ele><time>2026-04-03T05:53:48Z</time></trkpt><trkpt lat="44.12160369941639" lon="3.4164989023183994"><ele>881.0</ele><time>2026-04-03T05:53:50Z</time></trkpt><trkpt lat="44.12159177261846" lon="3.416674427087922"><ele>881.8333333333334</ele><time>2026-04-03T05:53:52Z</time></trkpt><trkpt lat="44.12156882961031" lon="3.416855687880802"><ele>882.6666666666667</ele><time>2026-04-03T05:53:54Z</time></trkpt><trkpt lat="44.121556805944934" lon="3.416980479454275"><ele>883.5</ele><time>2026-04-03T05:53:55Z</time></trkpt><trkpt lat="44.121552262997845" lon="3.4171042581705873"><ele>884.3333333333333</ele><time>2026-04-03T05:53:57Z</time></trkpt><trkpt lat="44.12155085638289" lon="3.4171983716745142"><ele>885.1666666666666</ele><time>2026-04-03T05:53:58Z</time></trkpt><trkpt lat="44.12152231126002" lon="3.41727809987572"><ele>886.0</ele><time>2026-04-03T05:53:59Z</time></trkpt><trkpt lat="44.12149757887543" lon="3.417369989690212"><ele>881.1999999999999</ele><time>2026-04-03T05:54:00Z</time></trkpt><trkpt lat="44.12143253827969" lon="3.417523068632347"><ele>876.3999999999999</ele><time>2026-04-03T05:54:02Z</time></trkpt><trkpt lat="44.121368955809736" lon="3.41765869199192"><ele>871.6</ele><time>2026-04-03T05:54:04Z</time></trkpt><trkpt lat="44.12132899043894" lon="3.4177289511640963"><ele>866.8</ele><time>2026-04-03T05:54:05Z</time></trkpt><trkpt lat="44.12127890733452" lon="3.417786343032624"><ele>862.0</ele><time>2026-04-03T05:54:06Z</time></trkpt><trkpt lat="44.12119568056207" lon="3.4178285173873224"><ele>862.0</ele><time>2026-04-03T05:54:08Z</time></trkpt><trkpt lat="44.12115411961943" lon="3.4179265758919684"><ele>862.0</ele><time>2026-04-03T05:54:11Z</time></trkpt><trkpt lat="44.121233147834296" lon="3.4179742426317086"><ele>862.0</ele><time>2026-04-03T05:54:13Z</time></trkpt><trkpt lat="44.12134064929934" lon="3.4179236777413853"><ele>862.0</ele><time>2026-04-03T05:54:15Z</time></trkpt><trkpt lat="44.121421641581705" lon="3.4178571294273916"><ele>862.0</ele><time>2026-04-03T05:54:17Z</time></trkpt><trkpt lat="44.12155681908402" lon="3.4177887577447237"><ele>857.8333333333333</ele><time>2026-04-03T05:54:19Z</time></trkpt><trkpt lat="44.121633552029856" lon="3.417735547169849"><ele>853.6666666666666</ele><time>2026-04-03T05:54:20Z</time></trkpt><trkpt lat="44.121698275682114" lon="3.4176788380004854"><ele>849.5</ele><time>2026-04-03T05:54:21Z</time></trkpt><trkpt lat="44.121769934341096" lon="3.4176203100168645"><ele>845.3333333333333</ele><time>2026-04-03T05:54:23Z</time></trkpt><trkpt lat="44.12182071049247" lon="3.4175386463255712"><ele>841.1666666666666</ele><time>2026-04-03T05:54:24Z</time></trkpt><trkpt lat="44.12189724997567" lon="3.4174849888158985"><ele>837.0</ele><time>2026-04-03T05:54:26Z</time></trkpt><trkpt lat="44.12195956116254" lon="3.417365722680998"><ele>837.0</ele><time>2026-04-03T05:54:28Z</time></trkpt><trkpt lat="44.121994741661794" lon="3.4172188958701772"><ele>837.0</ele><time>2026-04-03T05:54:30Z</time></trkpt><trkpt lat="44.12203291893892" lon="3.4170705097331937"><ele>837.0</ele><time>2026-04-03T05:54:32Z</time></trkpt><trkpt lat="44.12205692624314" lon="3.4169256065553237"><ele>837.0</ele><time>2026-04-03T05:54:34Z</time></trkpt><trkpt lat="44.12209904117773" lon="3.416770136752551"><ele>837.2</ele><time>2026-04-03T05:54:36Z</time></trkpt><trkpt lat="44.12222221562317" lon="3.4167703834914294"><ele>837.4000000000001</ele><time>2026-04-03T05:54:38Z</time></trkpt><trkpt lat="44.12228342542375" lon="3.4167928849890283"><ele>837.5999999999999</ele><time>2026-04-03T05:54:39Z</time></trkpt><trkpt lat="44.12233834940276" lon="3.416843133314454"><ele>837.8</ele><time>2026-04-03T05:54:40Z</time></trkpt><trkpt lat="44.12244371015636" lon="3.416939109961404"><ele>838.0</ele><time>2026-04-03T05:54:42Z</time></trkpt><trkpt lat="44.1225448584615" lon="3.4170156585089293"><ele>837.9999999999999</ele><time>2026-04-03T05:54:44Z</time></trkpt><trkpt lat="44.12261476462545" lon="3.417032594594491"><ele>838.0</ele><time>2026-04-03T05:54:45Z</time></trkpt><trkpt lat="44.12268671167915" lon="3.417048604719752"><ele>838.0</ele><time>2026-04-03T05:54:46Z</time></trkpt><trkpt lat="44.122761656246205" lon="3.417064020226737"><ele>838.0</ele><time>2026-04-03T05:54:47Z</time></trkpt><trkpt lat="44.12283577862266" lon="3.417077077073616"><ele>837.9999999999999</ele><time>2026-04-03T05:54:48Z</time></trkpt><trkpt lat="44.12294143455987" lon="3.4171015919206047"><ele>838.0</ele><time>2026-04-03T05:54:50Z</time></trkpt><trkpt lat="44.12306658384441" lon="3.417078242437806"><ele>838.0</ele><time>2026-04-03T05:54:52Z</time></trkpt><trkpt lat="44.12318853307137" lon="3.417046136368626"><ele>838.0</ele><time>2026-04-03T05:54:54Z</time></trkpt><trkpt lat="44.12331330703989" lon="3.416988579641248"><ele>838.0</ele><time>2026-04-03T05:54:56Z</time></trkpt><trkpt lat="44.12340862786589" lon="3.416936335971283"><ele>838.0</ele><time>2026-04-03T05:54:58Z</time></trkpt><trkpt lat="44.12349120834784" lon="3.416884641741597"><ele>838.0</ele><time>2026-04-03T05:54:59Z</time></trkpt><trkpt lat="44.123560424695135" lon="3.4168433423589244"><ele>836.1666666666666</ele><time>2026-04-03T05:55:00Z</time></trkpt><trkpt lat="44.12361936135129" lon="3.416800116937713"><ele>834.3333333333333</ele><time>2026-04-03T05:55:01Z</time></trkpt><trkpt lat="44.123670297027154" lon="3.416741901966235"><ele>832.5</ele><time>2026-04-03T05:55:02Z</time></trkpt><trkpt lat="44.12377748570414" lon="3.4166584561685527"><ele>830.6666666666667</ele><time>2026-04-03T05:55:04Z</time></trkpt><trkpt lat="44.12385231603868" lon="3.4166091944201575"><ele>828.8333333333334</ele><time>2026-04-03T05:55:06Z</time></trkpt><trkpt lat="44.1239123462809" lon="3.4165407135882617"><ele>827.0</ele><time>2026-04-03T05:55:08Z</time></trkpt><trkpt lat="44.12394571936623" lon="3.4166171545441935"><ele>827.0000000000001</ele><time>2026-04-03T05:55:35Z</time></trkpt><trkpt lat="44.12390639589982" lon="3.4167073971660042"><ele>827.0</ele><time>2026-04-03T05:55:38Z</time></trkpt><trkpt lat="44.123846889803104" lon="3.416752307569584"><ele>827.0</ele><time>2026-04-03T05:55:39Z</time></trkpt><trkpt lat="44.123778541389726" lon="3.4168107557371994"><ele>827.0</ele><time>2026-04-03T05:55:40Z</time></trkpt><trkpt lat="44.123695939815" lon="3.416897980775216"><ele>827.0000000000001</ele><time>2026-04-03T05:55:41Z</time></trkpt><trkpt lat="44.12360826136636" lon="3.416989094775896"><ele>827.0</ele><time>2026-04-03T05:55:42Z</time></trkpt><trkpt lat="44.123543327150095" lon="3.4170768101897018"><ele>824.6</ele><time>2026-04-03T05:55:43Z</time></trkpt><trkpt lat="44.123461719109514" lon="3.417156098861722"><ele>822.2</ele><time>2026-04-03T05:55:44Z</time></trkpt><trkpt lat="44.12339567562051" lon="3.417222333562435"><ele>819.8</ele><time>2026-04-03T05:55:45Z</time></trkpt><trkpt lat="44.123314611878044" lon="3.4173163394882824"><ele>817.4</ele><time>2026-04-03T05:55:46Z</time></trkpt><trkpt lat="44.123229050755725" lon="3.4173838813104833"><ele>815.0</ele><time>2026-04-03T05:55:47Z</time></trkpt><trkpt lat="44.12314750387833" lon="3.41744602750282"><ele>815.0</ele><time>2026-04-03T05:55:48Z</time></trkpt><trkpt lat="44.123076432126986" lon="3.417500294728134"><ele>815.0</ele><time>2026-04-03T05:55:49Z</time></trkpt><trkpt lat="44.122996890919026" lon="3.417562699520939"><ele>815.0</ele><time>2026-04-03T05:55:50Z</time></trkpt><trkpt lat="44.12291527539721" lon="3.4176452134632838"><ele>815.0</ele><time>2026-04-03T05:55:51Z</time></trkpt><trkpt lat="44.12288041315222" lon="3.417743142736872"><ele>815.0</ele><time>2026-04-03T05:55:52Z</time></trkpt><trkpt lat="44.12282561574948" lon="3.4178775812438813"><ele>811.0</ele><time>2026-04-03T05:55:53Z</time></trkpt><trkpt lat="44.122778112175475" lon="3.4180053274308193"><ele>807.0</ele><time>2026-04-03T05:55:54Z</time></trkpt><trkpt lat="44.12272536916734" lon="3.418117501535302"><ele>803.0</ele><time>2026-04-03T05:55:55Z</time></trkpt><trkpt lat="44.12266490595792" lon="3.418220696512899"><ele>799.0</ele><time>2026-04-03T05:55:56Z</time></trkpt><trkpt lat="44.12258751790692" lon="3.418333406300835"><ele>795.0</ele><time>2026-04-03T05:55:57Z</time></trkpt><trkpt lat="44.122501988804956" lon="3.418434347832179"><ele>795.0</ele><time>2026-04-03T05:55:58Z</time></trkpt><trkpt lat="44.12241616757857" lon="3.4185024942158604"><ele>795.0</ele><time>2026-04-03T05:55:59Z</time></trkpt><trkpt lat="44.12232672784043" lon="3.4185705249916265"><ele>795.0</ele><time>2026-04-03T05:56:00Z</time></trkpt><trkpt lat="44.122251361877694" lon="3.4186493376969804"><ele>795.0</ele><time>2026-04-03T05:56:01Z</time></trkpt><trkpt lat="44.12219391954263" lon="3.4187041565158403"><ele>795.0</ele><time>2026-04-03T05:56:02Z</time></trkpt><trkpt lat="44.122122756903586" lon="3.418795043904997"><ele>794.8333333333334</ele><time>2026-04-03T05:57:11Z</time></trkpt><trkpt lat="44.12204560487201" lon="3.418886083727202"><ele>794.6666666666667</ele><time>2026-04-03T05:57:13Z</time></trkpt><trkpt lat="44.121991643116196" lon="3.418961059551538"><ele>794.5</ele><time>2026-04-03T05:57:14Z</time></trkpt><trkpt lat="44.121940842280445" lon="3.419019460894403"><ele>794.3333333333334</ele><time>2026-04-03T05:57:15Z</time></trkpt><trkpt lat="44.12187601780221" lon="3.4190921898325892"><ele>794.1666666666667</ele><time>2026-04-03T05:57:16Z</time></trkpt><trkpt lat="44.12181590109231" lon="3.419161587217236"><ele>794.0</ele><time>2026-04-03T05:57:17Z</time></trkpt><trkpt lat="44.12176127426138" lon="3.419228242394723"><ele>794.0</ele><time>2026-04-03T05:57:18Z</time></trkpt><trkpt lat="44.12170793236654" lon="3.419290353156122"><ele>794.0</ele><time>2026-04-03T05:57:19Z</time></trkpt><trkpt lat="44.12165198191818" lon="3.419348456475023"><ele>794.0</ele><time>2026-04-03T05:57:20Z</time></trkpt><trkpt lat="44.121600342642836" lon="3.419413695551473"><ele>794.0</ele><time>2026-04-03T05:57:21Z</time></trkpt><trkpt lat="44.12154953856277" lon="3.4194874382118634"><ele>794.0</ele><time>2026-04-03T05:57:22Z</time></trkpt><trkpt lat="44.12150104883324" lon="3.4195729944967166"><ele>794.0</ele><time>2026-04-03T05:57:23Z</time></trkpt><trkpt lat="44.12146152223924" lon="3.41965287782813"><ele>794.0</ele><time>2026-04-03T05:57:24Z</time></trkpt><trkpt lat="44.12141599171439" lon="3.419723220247782"><ele>791.6666666666667</ele><time>2026-04-03T05:57:25Z</time></trkpt><trkpt lat="44.121369307002546" lon="3.4197894594538383"><ele>789.3333333333334</ele><time>2026-04-03T05:57:26Z</time></trkpt><trkpt lat="44.121323823719855" lon="3.419861731068303"><ele>787.0</ele><time>2026-04-03T05:57:27Z</time></trkpt><trkpt lat="44.121264665255865" lon="3.4199321210280136"><ele>784.6666666666667</ele><time>2026-04-03T05:57:28Z</time></trkpt><trkpt lat="44.121193395257116" lon="3.4199835732298545"><ele>782.3333333333334</ele><time>2026-04-03T05:57:29Z</time></trkpt><trkpt lat="44.12111502709139" lon="3.4200134347140088"><ele>780.0</ele><time>2026-04-03T05:57:30Z</time></trkpt><trkpt lat="44.12103323070578" lon="3.4200301746261306"><ele>780.0</ele><time>2026-04-03T05:57:31Z</time></trkpt><trkpt lat="44.120958492516415" lon="3.4200267319711983"><ele>780.0</ele><time>2026-04-03T05:57:32Z</time></trkpt><trkpt lat="44.12087945726744" lon="3.420005957753889"><ele>780.0</ele><time>2026-04-03T05:57:33Z</time></trkpt><trkpt lat="44.12079146405676" lon="3.4199704762456142"><ele>780.0</ele><time>2026-04-03T05:57:34Z</time></trkpt><trkpt lat="44.120701295460776" lon="3.4199214755367184"><ele>780.0</ele><time>2026-04-03T05:57:35Z</time></trkpt><trkpt lat="44.12061521525178" lon="3.4198571813245766"><ele>780.0</ele><time>2026-04-03T05:57:36Z</time></trkpt><trkpt lat="44.12051838794574" lon="3.4198439097486526"><ele>778.0</ele><time>2026-04-03T05:57:37Z</time></trkpt><trkpt lat="44.12040562423205" lon="3.4198172430060843"><ele>776.0</ele><time>2026-04-03T05:57:38Z</time></trkpt><trkpt lat="44.12030467080802" lon="3.4197984270421298"><ele>774.0</ele><time>2026-04-03T05:57:39Z</time></trkpt><trkpt lat="44.1202121883461" lon="3.4197747562543523"><ele>772.0</ele><time>2026-04-03T05:57:40Z</time></trkpt><trkpt lat="44.12011418805689" lon="3.4197588389739804"><ele>770.0</ele><time>2026-04-03T05:57:41Z</time></trkpt><trkpt lat="44.120023270180184" lon="3.419740119720157"><ele>770.0000000000001</ele><time>2026-04-03T05:57:42Z</time></trkpt><trkpt lat="44.11995582941794" lon="3.4197257486933483"><ele>770.0</ele><time>2026-04-03T05:57:43Z</time></trkpt><trkpt lat="44.11988152771111" lon="3.4197000693545556"><ele>770.0</ele><time>2026-04-03T05:57:44Z</time></trkpt><trkpt lat="44.119810688480285" lon="3.419679160907708"><ele>770.0</ele><time>2026-04-03T05:57:45Z</time></trkpt><trkpt lat="44.11973668606553" lon="3.4196475733067517"><ele>770.0000000000001</ele><time>2026-04-03T05:57:46Z</time></trkpt><trkpt lat="44.11966522975246" lon="3.4196136015398952"><ele>770.0</ele><time>2026-04-03T05:57:47Z</time></trkpt><trkpt lat="44.11958331211305" lon="3.419586734120647"><ele>771.6666666666667</ele><time>2026-04-03T05:57:48Z</time></trkpt><trkpt lat="44.119508520896154" lon="3.4195640081548424"><ele>773.3333333333334</ele><time>2026-04-03T05:57:49Z</time></trkpt><trkpt lat="44.11942339621701" lon="3.4195524861315345"><ele>775.0</ele><time>2026-04-03T05:57:50Z</time></trkpt><trkpt lat="44.119345874034416" lon="3.4195448543003995"><ele>776.6666666666667</ele><time>2026-04-03T05:57:51Z</time></trkpt><trkpt lat="44.11927233883627" lon="3.4195266853938158"><ele>778.3333333333334</ele><time>2026-04-03T05:57:52Z</time></trkpt><trkpt lat="44.11918673385096" lon="3.4195028877161247"><ele>780.0</ele><time>2026-04-03T05:57:53Z</time></trkpt><trkpt lat="44.11912256777022" lon="3.4194770991046974"><ele>777.1666666666666</ele><time>2026-04-03T05:57:54Z</time></trkpt><trkpt lat="44.11903558445091" lon="3.4194671377984354"><ele>774.3333333333334</ele><time>2026-04-03T05:57:55Z</time></trkpt><trkpt lat="44.11895407156184" lon="3.419430563339779"><ele>771.5</ele><time>2026-04-03T05:57:56Z</time></trkpt><trkpt lat="44.11889033464529" lon="3.4194203124483304"><ele>768.6666666666667</ele><time>2026-04-03T05:57:57Z</time></trkpt><trkpt lat="44.11882766340639" lon="3.4193995583560133"><ele>765.8333333333334</ele><time>2026-04-03T05:57:58Z</time></trkpt><trkpt lat="44.118745457399505" lon="3.4193648720226446"><ele>763.0</ele><time>2026-04-03T05:58:00Z</time></trkpt><trkpt lat="44.11870268529953" lon="3.419448703614312"><ele>763.0</ele><time>2026-04-03T06:00:05Z</time></trkpt><trkpt lat="44.11864912954545" lon="3.4193689407705223"><ele>763.0</ele><time>2026-04-03T06:00:06Z</time></trkpt><trkpt lat="44.11858959128914" lon="3.4193110031027514"><ele>763.0</ele><time>2026-04-03T06:00:07Z</time></trkpt><trkpt lat="44.11853109229234" lon="3.419203825828741"><ele>763.0</ele><time>2026-04-03T06:00:08Z</time></trkpt><trkpt lat="44.11845127705741" lon="3.419080468043233"><ele>763.0</ele><time>2026-04-03T06:00:09Z</time></trkpt><trkpt lat="44.11838956659659" lon="3.4189580063217333"><ele>763.0</ele><time>2026-04-03T06:00:10Z</time></trkpt><trkpt lat="44.11830669370095" lon="3.418853732156738"><ele>763.0</ele><time>2026-04-03T06:00:11Z</time></trkpt><trkpt lat="44.11820236282371" lon="3.4187604803336766"><ele>763.0</ele><time>2026-04-03T06:00:12Z</time></trkpt><trkpt lat="44.118081302268415" lon="3.4186868477696133"><ele>763.0</ele><time>2026-04-03T06:00:13Z</time></trkpt><trkpt lat="44.11795658322225" lon="3.418621104738164"><ele>761.5</ele><time>2026-04-03T06:00:14Z</time></trkpt><trkpt lat="44.1178433659617" lon="3.418565315130623"><ele>760.0</ele><time>2026-04-03T06:00:15Z</time></trkpt><trkpt lat="44.1177489066831" lon="3.4185084167394733"><ele>758.5</ele><time>2026-04-03T06:00:16Z</time></trkpt><trkpt lat="44.117638064295676" lon="3.4184341504045643"><ele>757.0</ele><time>2026-04-03T06:00:17Z</time></trkpt><trkpt lat="44.117521631326085" lon="3.418316131415736"><ele>757.0</ele><time>2026-04-03T06:00:18Z</time></trkpt><trkpt lat="44.1174300328938" lon="3.418196998908687"><ele>757.0</ele><time>2026-04-03T06:00:19Z</time></trkpt><trkpt lat="44.1173403347421" lon="3.4181046385013567"><ele>757.0</ele><time>2026-04-03T06:00:20Z</time></trkpt><trkpt lat="44.1172448382339" lon="3.418022859972983"><ele>757.0</ele><time>2026-04-03T06:00:21Z</time></trkpt><trkpt lat="44.11716917870231" lon="3.417962303504976"><ele>757.0</ele><time>2026-04-03T06:00:22Z</time></trkpt><trkpt lat="44.117098015003606" lon="3.417909500545204"><ele>756.0</ele><time>2026-04-03T06:00:23Z</time></trkpt><trkpt lat="44.11696217340122" lon="3.4178207823219533"><ele>755.0</ele><time>2026-04-03T06:00:25Z</time></trkpt><trkpt lat="44.11687466154652" lon="3.4177256615739595"><ele>754.0</ele><time>2026-04-03T06:00:26Z</time></trkpt><trkpt lat="44.11678582670041" lon="3.4176106885925055"><ele>753.0</ele><time>2026-04-03T06:00:27Z</time></trkpt><trkpt lat="44.11669068962577" lon="3.417533856183047"><ele>753.0</ele><time>2026-04-03T06:00:28Z</time></trkpt><trkpt lat="44.11661765724455" lon="3.4174748759961706"><ele>753.0</ele><time>2026-04-03T06:00:29Z</time></trkpt><trkpt lat="44.11653555578969" lon="3.4173964093151685"><ele>753.0</ele><time>2026-04-03T06:00:31Z</time></trkpt><trkpt lat="44.116456242295456" lon="3.417381585762653"><ele>753.0</ele><time>2026-04-03T06:00:39Z</time></trkpt><trkpt lat="44.11638780110949" lon="3.4175178905079604"><ele>753.0</ele><time>2026-04-03T06:00:41Z</time></trkpt><trkpt lat="44.11634915987031" lon="3.4176265192284103"><ele>754.6666666666666</ele><time>2026-04-03T06:00:42Z</time></trkpt><trkpt lat="44.11628412543705" lon="3.4177187895592076"><ele>756.3333333333334</ele><time>2026-04-03T06:00:43Z</time></trkpt><trkpt lat="44.11620968750642" lon="3.417768748409022"><ele>758.0</ele><time>2026-04-03T06:00:44Z</time></trkpt><trkpt lat="44.11613024625691" lon="3.4177614609730926"><ele>759.6666666666667</ele><time>2026-04-03T06:00:45Z</time></trkpt><trkpt lat="44.11607712991538" lon="3.4176562115370555"><ele>761.3333333333334</ele><time>2026-04-03T06:00:46Z</time></trkpt><trkpt lat="44.11601081653263" lon="3.4175596010272544"><ele>763.0</ele><time>2026-04-03T06:00:47Z</time></trkpt><trkpt lat="44.1159210473499" lon="3.4174465666100593"><ele>763.0</ele><time>2026-04-03T06:00:48Z</time></trkpt><trkpt lat="44.115822684031635" lon="3.4173005247602624"><ele>763.0</ele><time>2026-04-03T06:00:49Z</time></trkpt><trkpt lat="44.1157184590086" lon="3.4171378307352125"><ele>763.0</ele><time>2026-04-03T06:00:50Z</time></trkpt><trkpt lat="44.11560130889453" lon="3.4169687392357515"><ele>758.25</ele><time>2026-04-03T06:00:51Z</time></trkpt><trkpt lat="44.11550716404079" lon="3.416832826206163"><ele>753.5</ele><time>2026-04-03T06:00:52Z</time></trkpt><trkpt lat="44.11541569198501" lon="3.4167127577503607"><ele>748.75</ele><time>2026-04-03T06:00:53Z</time></trkpt><trkpt lat="44.11533739999302" lon="3.4166166853567908"><ele>744.0</ele><time>2026-04-03T06:00:54Z</time></trkpt><trkpt lat="44.11525294715903" lon="3.4165401752187456"><ele>744.0</ele><time>2026-04-03T06:00:55Z</time></trkpt><trkpt lat="44.11517127675144" lon="3.4165093408785125"><ele>744.0</ele><time>2026-04-03T06:00:56Z</time></trkpt><trkpt lat="44.115085145396236" lon="3.416505806824183"><ele>744.0</ele><time>2026-04-03T06:00:57Z</time></trkpt><trkpt lat="44.11499751758786" lon="3.4165146877526196"><ele>744.0</ele><time>2026-04-03T06:00:58Z</time></trkpt><trkpt lat="44.114915070302985" lon="3.416501894631208"><ele>744.0</ele><time>2026-04-03T06:00:59Z</time></trkpt><trkpt lat="44.11484585216195" lon="3.4165436115079153"><ele>744.0</ele><time>2026-04-03T06:01:00Z</time></trkpt><trkpt lat="44.1147821786594" lon="3.4165628480167824"><ele>742.6</ele><time>2026-04-03T06:01:01Z</time></trkpt><trkpt lat="44.114732857835406" lon="3.416664319047053"><ele>741.2</ele><time>2026-04-03T06:01:02Z</time></trkpt><trkpt lat="44.114693491071776" lon="3.4167797495560093"><ele>739.8000000000001</ele><time>2026-04-03T06:01:03Z</time></trkpt><trkpt lat="44.114673029649325" lon="3.4169091934263345"><ele>738.4000000000001</ele><time>2026-04-03T06:01:04Z</time></trkpt><trkpt lat="44.11468671974533" lon="3.4170412103307997"><ele>737.0</ele><time>2026-04-03T06:01:05Z</time></trkpt><trkpt lat="44.11471391839341" lon="3.417177654423517"><ele>736.8</ele><time>2026-04-03T06:01:06Z</time></trkpt><trkpt lat="44.114729057785915" lon="3.4173241956890092"><ele>736.6</ele><time>2026-04-03T06:01:07Z</time></trkpt><trkpt lat="44.11469332812398" lon="3.417457103309862"><ele>736.4</ele><time>2026-04-03T06:01:08Z</time></trkpt><trkpt lat="44.114664397742935" lon="3.4175841339103856"><ele>736.1999999999999</ele><time>2026-04-03T06:01:09Z</time></trkpt><trkpt lat="44.11459851372707" lon="3.417700190496914"><ele>736.0</ele><time>2026-04-03T06:01:10Z</time></trkpt><trkpt lat="44.11453552229687" lon="3.4178357498979173"><ele>738.0</ele><time>2026-04-03T06:01:11Z</time></trkpt><trkpt lat="44.114462004391655" lon="3.417993229310066"><ele>740.0</ele><time>2026-04-03T06:01:12Z</time></trkpt><trkpt lat="44.11437902900366" lon="3.4181579389843773"><ele>742.0</ele><time>2026-04-03T06:01:13Z</time></trkpt><trkpt lat="44.11432634938287" lon="3.4183527981001816"><ele>744.0</ele><time>2026-04-03T06:01:14Z</time></trkpt><trkpt lat="44.11422825497887" lon="3.4184953060422516"><ele>744.0</ele><time>2026-04-03T06:01:15Z</time></trkpt><trkpt lat="44.11414047481182" lon="3.41863661244103"><ele>744.0</ele><time>2026-04-03T06:01:16Z</time></trkpt><trkpt lat="44.11408188396851" lon="3.4188027345137337"><ele>744.0</ele><time>2026-04-03T06:01:17Z</time></trkpt><trkpt lat="44.11402330293381" lon="3.4189734999564223"><ele>744.0</ele><time>2026-04-03T06:01:18Z</time></trkpt><trkpt lat="44.114011444098644" lon="3.4191622267011033"><ele>744.5</ele><time>2026-04-03T06:01:19Z</time></trkpt><trkpt lat="44.11400328829608" lon="3.419351430929183"><ele>745.0</ele><time>2026-04-03T06:01:20Z</time></trkpt><trkpt lat="44.11400425955349" lon="3.4195594647140415"><ele>745.5</ele><time>2026-04-03T06:01:21Z</time></trkpt><trkpt lat="44.1139826305075" lon="3.4197790125347187"><ele>746.0</ele><time>2026-04-03T06:01:22Z</time></trkpt><trkpt lat="44.113994879007315" lon="3.4199882635145076"><ele>746.0</ele><time>2026-04-03T06:01:23Z</time></trkpt><trkpt lat="44.113991639882315" lon="3.4201910437039666"><ele>746.0</ele><time>2026-04-03T06:01:24Z</time></trkpt><trkpt lat="44.11400372596863" lon="3.420397057167466"><ele>746.0</ele><time>2026-04-03T06:01:25Z</time></trkpt><trkpt lat="44.114011391003125" lon="3.4206034456277385"><ele>746.0</ele><time>2026-04-03T06:01:26Z</time></trkpt><trkpt lat="44.11401861663361" lon="3.4208072793747886"><ele>747.25</ele><time>2026-04-03T06:01:27Z</time></trkpt><trkpt lat="44.114023749119774" lon="3.4210054447968488"><ele>748.5</ele><time>2026-04-03T06:01:28Z</time></trkpt><trkpt lat="44.11402772709102" lon="3.4212015207644564"><ele>749.75</ele><time>2026-04-03T06:01:29Z</time></trkpt><trkpt lat="44.11402984315608" lon="3.421402403482299"><ele>751.0</ele><time>2026-04-03T06:01:30Z</time></trkpt><trkpt lat="44.114034737684804" lon="3.4215963172886057"><ele>751.75</ele><time>2026-04-03T06:01:31Z</time></trkpt><trkpt lat="44.11403793450277" lon="3.4217874349212414"><ele>752.5</ele><time>2026-04-03T06:01:32Z</time></trkpt><trkpt lat="44.114040599465675" lon="3.4219868740632347"><ele>753.25</ele><time>2026-04-03T06:01:33Z</time></trkpt><trkpt lat="44.11404671666845" lon="3.422193409446582"><ele>754.0</ele><time>2026-04-03T06:01:34Z</time></trkpt><trkpt lat="44.11405464072221" lon="3.4223982851756825"><ele>757.25</ele><time>2026-04-03T06:01:35Z</time></trkpt><trkpt lat="44.1140857214875" lon="3.4225932913552346"><ele>760.5</ele><time>2026-04-03T06:01:36Z</time></trkpt><trkpt lat="44.11411402267858" lon="3.4228003708455055"><ele>763.75</ele><time>2026-04-03T06:01:37Z</time></trkpt><trkpt lat="44.114123296116446" lon="3.4230054991387733"><ele>767.0</ele><time>2026-04-03T06:01:38Z</time></trkpt><trkpt lat="44.11414487471119" lon="3.423208214540421"><ele>767.0</ele><time>2026-04-03T06:01:39Z</time></trkpt><trkpt lat="44.11416658717041" lon="3.423403724194581"><ele>767.0</ele><time>2026-04-03T06:01:40Z</time></trkpt><trkpt lat="44.11418727817325" lon="3.423592755249588"><ele>767.0</ele><time>2026-04-03T06:01:41Z</time></trkpt><trkpt lat="44.1142353577744" lon="3.4237789572762094"><ele>767.0</ele><time>2026-04-03T06:01:42Z</time></trkpt><trkpt lat="44.114278355825235" lon="3.4239654756755806"><ele>766.25</ele><time>2026-04-03T06:01:43Z</time></trkpt><trkpt lat="44.11431289529765" lon="3.424156656123355"><ele>765.5</ele><time>2026-04-03T06:01:44Z</time></trkpt><trkpt lat="44.11435719203101" lon="3.4243390226413646"><ele>764.75</ele><time>2026-04-03T06:01:45Z</time></trkpt><trkpt lat="44.114388995001036" lon="3.4245092680410414"><ele>764.0</ele><time>2026-04-03T06:01:46Z</time></trkpt><trkpt lat="44.11439975252789" lon="3.4246668764624544"><ele>765.5</ele><time>2026-04-03T06:01:47Z</time></trkpt><trkpt lat="44.11440683391435" lon="3.4248391304423893"><ele>767.0</ele><time>2026-04-03T06:01:48Z</time></trkpt><trkpt lat="44.11439048102291" lon="3.4250239508410374"><ele>768.5</ele><time>2026-04-03T06:01:49Z</time></trkpt><trkpt lat="44.11438089684163" lon="3.425208405901208"><ele>770.0</ele><time>2026-04-03T06:01:50Z</time></trkpt><trkpt lat="44.1143689506464" lon="3.4253778496133696"><ele>773.5</ele><time>2026-04-03T06:01:51Z</time></trkpt><trkpt lat="44.11433085119001" lon="3.425534497173684"><ele>777.0</ele><time>2026-04-03T06:01:52Z</time></trkpt><trkpt lat="44.114240658067295" lon="3.4256612278704544"><ele>780.5</ele><time>2026-04-03T06:01:53Z</time></trkpt><trkpt lat="44.114164562611776" lon="3.4257951975008525"><ele>784.0</ele><time>2026-04-03T06:01:54Z</time></trkpt><trkpt lat="44.114074871272585" lon="3.4259375404853305"><ele>783.3333333333333</ele><time>2026-04-03T06:01:55Z</time></trkpt><trkpt lat="44.113962522656784" lon="3.42607418457664"><ele>782.6666666666667</ele><time>2026-04-03T06:01:56Z</time></trkpt><trkpt lat="44.113859234276916" lon="3.426236338592232"><ele>782.0</ele><time>2026-04-03T06:01:57Z</time></trkpt><trkpt lat="44.11373774156994" lon="3.4263619457948207"><ele>782.0</ele><time>2026-04-03T06:01:58Z</time></trkpt><trkpt lat="44.11361810961521" lon="3.426489312424487"><ele>782.0</ele><time>2026-04-03T06:01:59Z</time></trkpt><trkpt lat="44.11349083995339" lon="3.4266064869557016"><ele>782.0</ele><time>2026-04-03T06:02:00Z</time></trkpt><trkpt lat="44.11335289392004" lon="3.4267125964653493"><ele>778.3333333333334</ele><time>2026-04-03T06:02:01Z</time></trkpt><trkpt lat="44.11322111713861" lon="3.426832401011475"><ele>774.6666666666667</ele><time>2026-04-03T06:02:02Z</time></trkpt><trkpt lat="44.11307695794796" lon="3.4269007912463865"><ele>771.0</ele><time>2026-04-03T06:02:03Z</time></trkpt><trkpt lat="44.11293422351729" lon="3.426942938379561"><ele>771.0</ele><time>2026-04-03T06:02:04Z</time></trkpt><trkpt lat="44.112787968702" lon="3.426978913328031"><ele>771.0</ele><time>2026-04-03T06:02:05Z</time></trkpt><trkpt lat="44.11263460581009" lon="3.4270103902134808"><ele>771.0</ele><time>2026-04-03T06:02:06Z</time></trkpt><trkpt lat="44.11248631362903" lon="3.4270409856611814"><ele>773.25</ele><time>2026-04-03T06:02:07Z</time></trkpt><trkpt lat="44.11234535874947" lon="3.427072688741985"><ele>775.5</ele><time>2026-04-03T06:02:08Z</time></trkpt><trkpt lat="44.112217660355306" lon="3.4271004124047133"><ele>777.75</ele><time>2026-04-03T06:02:09Z</time></trkpt><trkpt lat="44.112086684655324" lon="3.427127786566179"><ele>780.0</ele><time>2026-04-03T06:02:10Z</time></trkpt><trkpt lat="44.11195965722204" lon="3.427194979456553"><ele>780.0</ele><time>2026-04-03T06:02:11Z</time></trkpt><trkpt lat="44.11183636229671" lon="3.4272597882648883"><ele>780.0</ele><time>2026-04-03T06:02:12Z</time></trkpt><trkpt lat="44.111722011485234" lon="3.4273384894878203"><ele>780.0</ele><time>2026-04-03T06:02:13Z</time></trkpt><trkpt lat="44.11162966693794" lon="3.42740769931376"><ele>780.0</ele><time>2026-04-03T06:02:14Z</time></trkpt><trkpt lat="44.1115515114257" lon="3.427453279190565"><ele>780.0</ele><time>2026-04-03T06:02:15Z</time></trkpt><trkpt lat="44.11151261542771" lon="3.427580559815271"><ele>783.0</ele><time>2026-04-03T06:02:16Z</time></trkpt><trkpt lat="44.111509355480514" lon="3.427719518095226"><ele>786.0</ele><time>2026-04-03T06:02:17Z</time></trkpt><trkpt lat="44.11154201156272" lon="3.427859845992089"><ele>789.0</ele><time>2026-04-03T06:02:18Z</time></trkpt><trkpt lat="44.11162851294211" lon="3.4279897158777364"><ele>792.0</ele><time>2026-04-03T06:02:19Z</time></trkpt><trkpt lat="44.111730464064074" lon="3.4281152365102785"><ele>792.0</ele><time>2026-04-03T06:02:20Z</time></trkpt><trkpt lat="44.111825304036216" lon="3.4282386232316022"><ele>792.0</ele><time>2026-04-03T06:02:21Z</time></trkpt><trkpt lat="44.11187047932898" lon="3.4283774272258856"><ele>792.0</ele><time>2026-04-03T06:02:22Z</time></trkpt><trkpt lat="44.1118956654588" lon="3.428496809920274"><ele>792.0</ele><time>2026-04-03T06:02:23Z</time></trkpt><trkpt lat="44.11187865257852" lon="3.428594535727759"><ele>792.0</ele><time>2026-04-03T06:02:24Z</time></trkpt><trkpt lat="44.1118239645109" lon="3.4286398153249524"><ele>792.0</ele><time>2026-04-03T06:02:25Z</time></trkpt><trkpt lat="44.11175649892653" lon="3.428664735723482"><ele>792.0</ele><time>2026-04-03T06:02:26Z</time></trkpt><trkpt lat="44.111661140421496" lon="3.428687753573484"><ele>792.0</ele><time>2026-04-03T06:02:27Z</time></trkpt><trkpt lat="44.111540301500135" lon="3.4287218776344064"><ele>792.0</ele><time>2026-04-03T06:02:28Z</time></trkpt><trkpt lat="44.111426010490256" lon="3.4287786001052645"><ele>792.0</ele><time>2026-04-03T06:02:29Z</time></trkpt><trkpt lat="44.11133481312954" lon="3.4288673961946654"><ele>790.25</ele><time>2026-04-03T06:02:30Z</time></trkpt><trkpt lat="44.11130002354209" lon="3.4290279610403527"><ele>788.5</ele><time>2026-04-03T06:02:31Z</time></trkpt><trkpt lat="44.11123439108304" lon="3.429198671898026"><ele>786.75</ele><time>2026-04-03T06:02:32Z</time></trkpt><trkpt lat="44.111149794873256" lon="3.4293526063322473"><ele>785.0</ele><time>2026-04-03T06:02:33Z</time></trkpt><trkpt lat="44.11105318372022" lon="3.4294613243348264"><ele>785.0</ele><time>2026-04-03T06:02:34Z</time></trkpt><trkpt lat="44.11093431388344" lon="3.4295399708124803"><ele>785.0</ele><time>2026-04-03T06:02:35Z</time></trkpt><trkpt lat="44.11080913196685" lon="3.429590099954547"><ele>785.0</ele><time>2026-04-03T06:02:36Z</time></trkpt><trkpt lat="44.1106743295478" lon="3.429639306745856"><ele>785.0</ele><time>2026-04-03T06:02:37Z</time></trkpt><trkpt lat="44.11054312850038" lon="3.4297183476109177"><ele>788.75</ele><time>2026-04-03T06:02:38Z</time></trkpt><trkpt lat="44.110413569453605" lon="3.4297854639639738"><ele>792.5</ele><time>2026-04-03T06:02:39Z</time></trkpt><trkpt lat="44.11028506988182" lon="3.429880693245674"><ele>796.25</ele><time>2026-04-03T06:02:40Z</time></trkpt><trkpt lat="44.11017652011283" lon="3.429977866074894"><ele>800.0</ele><time>2026-04-03T06:02:41Z</time></trkpt><trkpt lat="44.11008178934128" lon="3.430053638084667"><ele>800.0</ele><time>2026-04-03T06:02:42Z</time></trkpt><trkpt lat="44.110005940031996" lon="3.4301207828771774"><ele>800.0</ele><time>2026-04-03T06:02:43Z</time></trkpt><trkpt lat="44.10994784196444" lon="3.4301969299422046"><ele>800.0</ele><time>2026-04-03T06:02:44Z</time></trkpt><trkpt lat="44.109954697580186" lon="3.43034102751099"><ele>800.0</ele><time>2026-04-03T06:02:45Z</time></trkpt><trkpt lat="44.11000277282094" lon="3.4304651478843318"><ele>800.0</ele><time>2026-04-03T06:02:46Z</time></trkpt><trkpt lat="44.11008736231745" lon="3.4305691560223606"><ele>799.25</ele><time>2026-04-03T06:02:47Z</time></trkpt><trkpt lat="44.110208207354994" lon="3.430598699513036"><ele>798.5</ele><time>2026-04-03T06:02:48Z</time></trkpt><trkpt lat="44.11034165038913" lon="3.43060448552514"><ele>797.75</ele><time>2026-04-03T06:02:49Z</time></trkpt><trkpt lat="44.11049286192346" lon="3.4306122633447753"><ele>797.0</ele><time>2026-04-03T06:02:50Z</time></trkpt><trkpt lat="44.11065676145978" lon="3.4306379881128537"><ele>801.6666666666667</ele><time>2026-04-03T06:02:51Z</time></trkpt><trkpt lat="44.110828153284636" lon="3.430660619985729"><ele>806.3333333333333</ele><time>2026-04-03T06:02:52Z</time></trkpt><trkpt lat="44.11099515704379" lon="3.4306815080024893"><ele>811.0</ele><time>2026-04-03T06:02:53Z</time></trkpt><trkpt lat="44.11114986593307" lon="3.430708106823595"><ele>811.0</ele><time>2026-04-03T06:02:54Z</time></trkpt><trkpt lat="44.11127895069803" lon="3.430753624260949"><ele>811.0</ele><time>2026-04-03T06:02:55Z</time></trkpt><trkpt lat="44.11138941337308" lon="3.430827734661125"><ele>811.0</ele><time>2026-04-03T06:02:56Z</time></trkpt><trkpt lat="44.11145281431516" lon="3.4309443096401098"><ele>811.0</ele><time>2026-04-03T06:02:57Z</time></trkpt><trkpt lat="44.111420729324976" lon="3.4310927707894074"><ele>811.0</ele><time>2026-04-03T06:02:58Z</time></trkpt><trkpt lat="44.11141136351021" lon="3.4312456667991813"><ele>811.0</ele><time>2026-04-03T06:02:59Z</time></trkpt><trkpt lat="44.11140102013732" lon="3.431427370713693"><ele>811.0</ele><time>2026-04-03T06:03:00Z</time></trkpt><trkpt lat="44.1113839002674" lon="3.4316210738409527"><ele>811.0</ele><time>2026-04-03T06:03:01Z</time></trkpt><trkpt lat="44.11139783131941" lon="3.431803543364061"><ele>811.0</ele><time>2026-04-03T06:03:02Z</time></trkpt><trkpt lat="44.11145642615943" lon="3.4319520163100314"><ele>811.0</ele><time>2026-04-03T06:03:03Z</time></trkpt><trkpt lat="44.11155386371219" lon="3.432076499131328"><ele>811.0</ele><time>2026-04-03T06:03:04Z</time></trkpt><trkpt lat="44.11168552136276" lon="3.4321681928944994"><ele>811.0</ele><time>2026-04-03T06:03:05Z</time></trkpt><trkpt lat="44.111812104826846" lon="3.432254651580434"><ele>811.0</ele><time>2026-04-03T06:03:06Z</time></trkpt><trkpt lat="44.11189744787511" lon="3.4324003001212353"><ele>811.0</ele><time>2026-04-03T06:03:07Z</time></trkpt><trkpt lat="44.11193115237811" lon="3.4325739423774797"><ele>811.0</ele><time>2026-04-03T06:03:08Z</time></trkpt><trkpt lat="44.111988843490785" lon="3.432739217551697"><ele>811.0</ele><time>2026-04-03T06:03:09Z</time></trkpt><trkpt lat="44.11205001012029" lon="3.4329173303193907"><ele>809.0</ele><time>2026-04-03T06:03:10Z</time></trkpt><trkpt lat="44.11216274526813" lon="3.4330850409849707"><ele>807.0</ele><time>2026-04-03T06:03:11Z</time></trkpt><trkpt lat="44.112294557281324" lon="3.4332480326208454"><ele>805.0</ele><time>2026-04-03T06:03:12Z</time></trkpt><trkpt lat="44.11240649249204" lon="3.433401341836436"><ele>811.0</ele><time>2026-04-03T06:03:13Z</time></trkpt><trkpt lat="44.11250656461575" lon="3.433517567204787"><ele>817.0</ele><time>2026-04-03T06:03:14Z</time></trkpt><trkpt lat="44.11262008541476" lon="3.4335678940561887"><ele>823.0</ele><time>2026-04-03T06:03:15Z</time></trkpt><trkpt lat="44.112754472878606" lon="3.433616964430059"><ele>829.0</ele><time>2026-04-03T06:03:16Z</time></trkpt><trkpt lat="44.112860986215125" lon="3.4337460840999237"><ele>830.0</ele><time>2026-04-03T06:03:17Z</time></trkpt><trkpt lat="44.11297761208817" lon="3.433899822196202"><ele>831.0</ele><time>2026-04-03T06:03:18Z</time></trkpt><trkpt lat="44.11306942595905" lon="3.434063190981293"><ele>832.0</ele><time>2026-04-03T06:03:19Z</time></trkpt><trkpt lat="44.113173262444874" lon="3.4341762066358843"><ele>833.0</ele><time>2026-04-03T06:03:20Z</time></trkpt><trkpt lat="44.11329800896371" lon="3.4342105232205573"><ele>833.0</ele><time>2026-04-03T06:03:21Z</time></trkpt><trkpt lat="44.11342549480226" lon="3.4342039902653214"><ele>833.0</ele><time>2026-04-03T06:03:22Z</time></trkpt><trkpt lat="44.11358920118554" lon="3.43427252847375"><ele>833.0</ele><time>2026-04-03T06:03:23Z</time></trkpt><trkpt lat="44.11374306751601" lon="3.4340466646551584"><ele>833.0</ele><time>2026-04-03T06:03:24Z</time></trkpt><trkpt lat="44.1139230820936" lon="3.433976117903938"><ele>833.0</ele><time>2026-04-03T06:03:25Z</time></trkpt><trkpt lat="44.11410980175939" lon="3.43390959866368"><ele>833.0</ele><time>2026-04-03T06:03:26Z</time></trkpt><trkpt lat="44.11428139773547" lon="3.433844063388083"><ele>844.6666666666667</ele><time>2026-04-03T06:03:27Z</time></trkpt><trkpt lat="44.11445378672818" lon="3.433781176331564"><ele>856.3333333333333</ele><time>2026-04-03T06:03:28Z</time></trkpt><trkpt lat="44.114592095504335" lon="3.4337308021248205"><ele>868.0</ele><time>2026-04-03T06:03:29Z</time></trkpt><trkpt lat="44.11472975156665" lon="3.4336840068292904"><ele>868.0</ele><time>2026-04-03T06:03:30Z</time></trkpt><trkpt lat="44.11485660213449" lon="3.433625747644715"><ele>868.0</ele><time>2026-04-03T06:03:31Z</time></trkpt><trkpt lat="44.11495463208605" lon="3.433587990621717"><ele>868.0</ele><time>2026-04-03T06:03:32Z</time></trkpt><trkpt lat="44.1150352865482" lon="3.4335725334350458"><ele>868.0</ele><time>2026-04-03T06:03:33Z</time></trkpt><trkpt lat="44.11515931559387" lon="3.433747430990998"><ele>864.5999999999999</ele><time>2026-04-03T06:03:35Z</time></trkpt><trkpt lat="44.11517497718519" lon="3.4338636281903923"><ele>861.1999999999999</ele><time>2026-04-03T06:03:36Z</time></trkpt><trkpt lat="44.11519157524291" lon="3.433986313633575"><ele>857.8</ele><time>2026-04-03T06:03:37Z</time></trkpt><trkpt lat="44.11518819452922" lon="3.434108012805664"><ele>854.4</ele><time>2026-04-03T06:03:38Z</time></trkpt><trkpt lat="44.115123775575576" lon="3.4342131520219787"><ele>851.0</ele><time>2026-04-03T06:03:39Z</time></trkpt><trkpt lat="44.11501710033494" lon="3.4342356854159446"><ele>851.0</ele><time>2026-04-03T06:03:40Z</time></trkpt><trkpt lat="44.114915656593425" lon="3.43430875195095"><ele>851.0</ele><time>2026-04-03T06:03:41Z</time></trkpt><trkpt lat="44.1147980086851" lon="3.434389747394916"><ele>851.0</ele><time>2026-04-03T06:03:42Z</time></trkpt><trkpt lat="44.114664240241794" lon="3.434507468946937"><ele>851.0</ele><time>2026-04-03T06:03:43Z</time></trkpt><trkpt lat="44.114526125937324" lon="3.434602073507946"><ele>851.6666666666667</ele><time>2026-04-03T06:03:44Z</time></trkpt><trkpt lat="44.11438267046731" lon="3.4347022814380077"><ele>852.3333333333333</ele><time>2026-04-03T06:03:45Z</time></trkpt><trkpt lat="44.11423277438793" lon="3.434803075323029"><ele>853.0</ele><time>2026-04-03T06:03:46Z</time></trkpt><trkpt lat="44.11407185299367" lon="3.4348737579689526"><ele>844.0</ele><time>2026-04-03T06:03:47Z</time></trkpt><trkpt lat="44.1139258757661" lon="3.43498509898627"><ele>835.0</ele><time>2026-04-03T06:03:48Z</time></trkpt><trkpt lat="44.11376921538954" lon="3.4350604457381375"><ele>826.0</ele><time>2026-04-03T06:03:49Z</time></trkpt><trkpt lat="44.11363178551764" lon="3.4351702528628"><ele>826.0</ele><time>2026-04-03T06:03:50Z</time></trkpt><trkpt lat="44.113497932076356" lon="3.4352479729722067"><ele>826.0</ele><time>2026-04-03T06:03:51Z</time></trkpt><trkpt lat="44.11338880069999" lon="3.4353405595523476"><ele>826.0</ele><time>2026-04-03T06:03:52Z</time></trkpt><trkpt lat="44.11329625204666" lon="3.435466507253871"><ele>826.0</ele><time>2026-04-03T06:03:53Z</time></trkpt><trkpt lat="44.1132224823021" lon="3.435656733649344"><ele>825.6666666666666</ele><time>2026-04-03T06:03:54Z</time></trkpt><trkpt lat="44.11314406030268" lon="3.4358777207862996"><ele>825.3333333333333</ele><time>2026-04-03T06:03:55Z</time></trkpt><trkpt lat="44.11303881460625" lon="3.4360837763726693"><ele>825.0</ele><time>2026-04-03T06:03:56Z</time></trkpt><trkpt lat="44.11296787530055" lon="3.4363102285231846"><ele>828.6666666666667</ele><time>2026-04-03T06:03:57Z</time></trkpt><trkpt lat="44.11290273120343" lon="3.4365421739720103"><ele>832.3333333333334</ele><time>2026-04-03T06:03:58Z</time></trkpt><trkpt lat="44.11286068787129" lon="3.4367423926791276"><ele>836.0</ele><time>2026-04-03T06:03:59Z</time></trkpt><trkpt lat="44.112835156851034" lon="3.436938130558038"><ele>840.3333333333334</ele><time>2026-04-03T06:04:00Z</time></trkpt><trkpt lat="44.112837614477804" lon="3.4371794516794782"><ele>844.6666666666667</ele><time>2026-04-03T06:04:01Z</time></trkpt><trkpt lat="44.11285685659467" lon="3.4374389289269556"><ele>849.0</ele><time>2026-04-03T06:04:02Z</time></trkpt><trkpt lat="44.1128906332122" lon="3.4376856290179285"><ele>849.0</ele><time>2026-04-03T06:04:03Z</time></trkpt><trkpt lat="44.11294675900601" lon="3.437915026104947"><ele>849.0</ele><time>2026-04-03T06:04:04Z</time></trkpt><trkpt lat="44.11301163970385" lon="3.4381458382727845"><ele>849.0</ele><time>2026-04-03T06:04:05Z</time></trkpt><trkpt lat="44.113007830054684" lon="3.4383854686391575"><ele>852.3333333333333</ele><time>2026-04-03T06:04:06Z</time></trkpt><trkpt lat="44.112990736857455" lon="3.438617664526908"><ele>855.6666666666666</ele><time>2026-04-03T06:04:07Z</time></trkpt><trkpt lat="44.112943491239804" lon="3.4388332779459017"><ele>859.0</ele><time>2026-04-03T06:04:08Z</time></trkpt><trkpt lat="44.11288766688112" lon="3.4390491907242295"><ele>859.0</ele><time>2026-04-03T06:04:09Z</time></trkpt><trkpt lat="44.112846886937334" lon="3.439261695542619"><ele>859.0</ele><time>2026-04-03T06:04:10Z</time></trkpt><trkpt lat="44.11280359165204" lon="3.439455993364776"><ele>859.0</ele><time>2026-04-03T06:04:11Z</time></trkpt><trkpt lat="44.11280384018384" lon="3.4396419996173457"><ele>859.0</ele><time>2026-04-03T06:04:12Z</time></trkpt><trkpt lat="44.11283995691131" lon="3.4398076505123236"><ele>859.2</ele><time>2026-04-03T06:04:13Z</time></trkpt><trkpt lat="44.11284818129456" lon="3.4399576101119416"><ele>859.4000000000001</ele><time>2026-04-03T06:04:14Z</time></trkpt><trkpt lat="44.112833602955206" lon="3.4400673084361224"><ele>859.6</ele><time>2026-04-03T06:04:15Z</time></trkpt><trkpt lat="44.11276481975473" lon="3.4401089175542703"><ele>859.8</ele><time>2026-04-03T06:04:16Z</time></trkpt><trkpt lat="44.112651401175754" lon="3.4401578327558884"><ele>860.0</ele><time>2026-04-03T06:04:18Z</time></trkpt><trkpt lat="44.11258136900389" lon="3.4401707787085303"><ele>860.0</ele><time>2026-04-03T06:04:20Z</time></trkpt><trkpt lat="44.11253598647159" lon="3.4402413401772596"><ele>860.0</ele><time>2026-04-03T06:04:23Z</time></trkpt><trkpt lat="44.112606760738004" lon="3.440347280518089"><ele>860.0</ele><time>2026-04-03T06:04:25Z</time></trkpt><trkpt lat="44.11262743769837" lon="3.4402604629528035"><ele>860.0</ele><time>2026-04-03T06:04:48Z</time></trkpt><trkpt lat="44.11267859555878" lon="3.4402092495461845"><ele>860.0</ele><time>2026-04-03T06:04:53Z</time></trkpt><trkpt lat="44.11262553011756" lon="3.440292613690619"><ele>860.0</ele><time>2026-04-03T06:05:07Z</time></trkpt><trkpt lat="44.11268169326736" lon="3.4403463433999266"><ele>860.0</ele><time>2026-04-03T06:05:32Z</time></trkpt><trkpt lat="44.11274638158818" lon="3.4403522312125685"><ele>860.0000000000001</ele><time>2026-04-03T06:05:44Z</time></trkpt><trkpt lat="44.112801395411246" lon="3.440406147833878"><ele>860.0</ele><time>2026-04-03T06:05:59Z</time></trkpt><trkpt lat="44.11271444617754" lon="3.4404579047291373"><ele>860.0</ele><time>2026-04-03T06:06:36Z</time></trkpt><trkpt lat="44.112675874214155" lon="3.4405297839123055"><ele>860.0</ele><time>2026-04-03T06:06:46Z</time></trkpt><trkpt lat="44.112706632956446" lon="3.440673823690765"><ele>860.0000000000001</ele><time>2026-04-03T06:07:35Z</time></trkpt><trkpt lat="44.11276683151213" lon="3.440707381445739"><ele>860.0</ele><time>2026-04-03T06:07:47Z</time></trkpt><trkpt lat="44.11268265207858" lon="3.440674865793623"><ele>860.0</ele><time>2026-04-03T06:08:33Z</time></trkpt><trkpt lat="44.11261861472423" lon="3.4406813044193134"><ele>860.0</ele><time>2026-04-03T06:09:00Z</time></trkpt><trkpt lat="44.11258977640917" lon="3.4406030211500584"><ele>860.0</ele><time>2026-04-03T06:09:16Z</time></trkpt><trkpt lat="44.112631832564695" lon="3.440525554903298"><ele>860.0</ele><time>2026-04-03T06:09:24Z</time></trkpt><trkpt lat="44.11263346113101" lon="3.4404369036490206"><ele>860.0</ele><time>2026-04-03T06:09:32Z</time></trkpt><trkpt lat="44.112609230836604" lon="3.440355280695413"><ele>860.0</ele><time>2026-04-03T06:09:51Z</time></trkpt><trkpt lat="44.112622567677285" lon="3.4402515244036977"><ele>860.0</ele><time>2026-04-03T06:10:41Z</time></trkpt><trkpt lat="44.11258297461273" lon="3.44014560821543"><ele>860.0000000000001</ele><time>2026-04-03T06:10:43Z</time></trkpt><trkpt lat="44.11254325736252" lon="3.440050338414073"><ele>860.0</ele><time>2026-04-03T06:10:44Z</time></trkpt><trkpt lat="44.112510103970436" lon="3.439964843276172"><ele>860.0</ele><time>2026-04-03T06:10:45Z</time></trkpt><trkpt lat="44.11247919335694" lon="3.439880016602882"><ele>860.0</ele><time>2026-04-03T06:10:46Z</time></trkpt><trkpt lat="44.11244848456587" lon="3.4397875723607947"><ele>860.0000000000001</ele><time>2026-04-03T06:10:47Z</time></trkpt><trkpt lat="44.11241605391769" lon="3.439689530500259"><ele>860.0</ele><time>2026-04-03T06:10:48Z</time></trkpt><trkpt lat="44.11238086586111" lon="3.4395733820948355"><ele>867.8</ele><time>2026-04-03T06:10:49Z</time></trkpt><trkpt lat="44.112352524965054" lon="3.439437435972094"><ele>875.6</ele><time>2026-04-03T06:10:50Z</time></trkpt><trkpt lat="44.112346485806455" lon="3.43928219404113"><ele>883.4000000000001</ele><time>2026-04-03T06:10:51Z</time></trkpt><trkpt lat="44.1123412771915" lon="3.439126608949827"><ele>891.2</ele><time>2026-04-03T06:10:52Z</time></trkpt><trkpt lat="44.11233493904827" lon="3.438974767178237"><ele>899.0</ele><time>2026-04-03T06:10:53Z</time></trkpt><trkpt lat="44.11232726345916" lon="3.4388171481880208"><ele>898.0</ele><time>2026-04-03T06:10:54Z</time></trkpt><trkpt lat="44.112312505938895" lon="3.438650922808585"><ele>897.0</ele><time>2026-04-03T06:10:55Z</time></trkpt><trkpt lat="44.11227208439093" lon="3.4384840292092185"><ele>896.0</ele><time>2026-04-03T06:10:56Z</time></trkpt><trkpt lat="44.11221757213668" lon="3.438310388306089"><ele>895.0</ele><time>2026-04-03T06:10:57Z</time></trkpt><trkpt lat="44.11214217296253" lon="3.4381510870353345"><ele>895.0</ele><time>2026-04-03T06:10:58Z</time></trkpt><trkpt lat="44.11209511101335" lon="3.4379848102003616"><ele>895.0</ele><time>2026-04-03T06:10:59Z</time></trkpt><trkpt lat="44.112073118560275" lon="3.4377962294743796"><ele>895.0</ele><time>2026-04-03T06:11:00Z</time></trkpt><trkpt lat="44.112038757493764" lon="3.4375991046064365"><ele>895.0</ele><time>2026-04-03T06:11:01Z</time></trkpt><trkpt lat="44.11198377792967" lon="3.4374033503250754"><ele>892.6666666666666</ele><time>2026-04-03T06:11:02Z</time></trkpt><trkpt lat="44.111971882031966" lon="3.4371902885531136"><ele>890.3333333333333</ele><time>2026-04-03T06:11:03Z</time></trkpt><trkpt lat="44.11192578018449" lon="3.4369845449511556"><ele>888.0</ele><time>2026-04-03T06:11:04Z</time></trkpt><trkpt lat="44.111851205281766" lon="3.436779891923011"><ele>884.75</ele><time>2026-04-03T06:11:05Z</time></trkpt><trkpt lat="44.11176601776272" lon="3.4365960781843823"><ele>881.5</ele><time>2026-04-03T06:11:06Z</time></trkpt><trkpt lat="44.11171468991984" lon="3.4363993074073957"><ele>878.25</ele><time>2026-04-03T06:11:07Z</time></trkpt><trkpt lat="44.11166431245413" lon="3.4362226970280747"><ele>875.0</ele><time>2026-04-03T06:11:08Z</time></trkpt><trkpt lat="44.111622641351836" lon="3.4360635546902496"><ele>877.8</ele><time>2026-04-03T06:11:09Z</time></trkpt><trkpt lat="44.1115936911078" lon="3.4359249734257435"><ele>880.6</ele><time>2026-04-03T06:11:10Z</time></trkpt><trkpt lat="44.11155960634962" lon="3.4358064268372654"><ele>883.4000000000001</ele><time>2026-04-03T06:11:11Z</time></trkpt><trkpt lat="44.11146894911695" lon="3.435741520844577"><ele>886.2</ele><time>2026-04-03T06:11:12Z</time></trkpt><trkpt lat="44.11135347399149" lon="3.435699030794161"><ele>889.0</ele><time>2026-04-03T06:11:13Z</time></trkpt><trkpt lat="44.1112193604635" lon="3.4356908367054033"><ele>889.0</ele><time>2026-04-03T06:11:14Z</time></trkpt><trkpt lat="44.111104791030236" lon="3.435621301597841"><ele>889.0</ele><time>2026-04-03T06:11:15Z</time></trkpt><trkpt lat="44.11103221936679" lon="3.435489555178362"><ele>889.0</ele><time>2026-04-03T06:11:16Z</time></trkpt><trkpt lat="44.11093956256819" lon="3.435334805155873"><ele>889.0</ele><time>2026-04-03T06:11:17Z</time></trkpt><trkpt lat="44.11080281166153" lon="3.4351922446345258"><ele>893.3333333333333</ele><time>2026-04-03T06:11:18Z</time></trkpt><trkpt lat="44.11066598305931" lon="3.435055696122646"><ele>897.6666666666667</ele><time>2026-04-03T06:11:19Z</time></trkpt><trkpt lat="44.11052693801198" lon="3.4349208996669396"><ele>902.0</ele><time>2026-04-03T06:11:20Z</time></trkpt><trkpt lat="44.1104353772056" lon="3.4347416390629126"><ele>896.0</ele><time>2026-04-03T06:11:21Z</time></trkpt><trkpt lat="44.1103501436179" lon="3.434533739651943"><ele>890.0</ele><time>2026-04-03T06:11:22Z</time></trkpt><trkpt lat="44.110257016155536" lon="3.4343223198071664"><ele>884.0</ele><time>2026-04-03T06:11:23Z</time></trkpt><trkpt lat="44.11017040857244" lon="3.434147006193258"><ele>884.0</ele><time>2026-04-03T06:11:24Z</time></trkpt><trkpt lat="44.110054930828376" lon="3.433983118822493"><ele>884.0</ele><time>2026-04-03T06:11:25Z</time></trkpt><trkpt lat="44.10991772316859" lon="3.433874921730481"><ele>884.0</ele><time>2026-04-03T06:11:26Z</time></trkpt><trkpt lat="44.109776384191996" lon="3.433784874937058"><ele>879.3333333333334</ele><time>2026-04-03T06:11:27Z</time></trkpt><trkpt lat="44.10962560740977" lon="3.4337351685941995"><ele>874.6666666666667</ele><time>2026-04-03T06:11:28Z</time></trkpt><trkpt lat="44.10945920059424" lon="3.4337328333726176"><ele>870.0</ele><time>2026-04-03T06:11:29Z</time></trkpt><trkpt lat="44.10929438903283" lon="3.43372732922278"><ele>870.0</ele><time>2026-04-03T06:11:30Z</time></trkpt><trkpt lat="44.10914673006343" lon="3.433730320831347"><ele>870.0</ele><time>2026-04-03T06:11:31Z</time></trkpt><trkpt lat="44.10902161809277" lon="3.4337671153296054"><ele>870.0</ele><time>2026-04-03T06:11:32Z</time></trkpt><trkpt lat="44.10891114007171" lon="3.4338483886117794"><ele>870.0</ele><time>2026-04-03T06:11:33Z</time></trkpt><trkpt lat="44.1088079771749" lon="3.433964648872573"><ele>870.5</ele><time>2026-04-03T06:11:34Z</time></trkpt><trkpt lat="44.108724796811984" lon="3.4340819764715045"><ele>871.0</ele><time>2026-04-03T06:11:35Z</time></trkpt><trkpt lat="44.10867121749585" lon="3.434229870322966"><ele>871.5</ele><time>2026-04-03T06:11:36Z</time></trkpt><trkpt lat="44.10863467828631" lon="3.4343944518553498"><ele>872.0</ele><time>2026-04-03T06:11:37Z</time></trkpt><trkpt lat="44.10861928465859" lon="3.4345752079868515"><ele>873.0</ele><time>2026-04-03T06:11:38Z</time></trkpt><trkpt lat="44.108622353407576" lon="3.4347790423196556"><ele>874.0</ele><time>2026-04-03T06:11:39Z</time></trkpt><trkpt lat="44.10863010974409" lon="3.435004949003769"><ele>875.0</ele><time>2026-04-03T06:11:40Z</time></trkpt><trkpt lat="44.10863167171671" lon="3.435245305724261"><ele>875.0</ele><time>2026-04-03T06:11:41Z</time></trkpt><trkpt lat="44.10862627277056" lon="3.435486293351323"><ele>875.0</ele><time>2026-04-03T06:11:42Z</time></trkpt><trkpt lat="44.10861531803625" lon="3.4357363031101187"><ele>875.0</ele><time>2026-04-03T06:11:43Z</time></trkpt><trkpt lat="44.108600121038116" lon="3.4359791754525286"><ele>875.0</ele><time>2026-04-03T06:11:44Z</time></trkpt><trkpt lat="44.10861122715377" lon="3.4362127468713726"><ele>875.0</ele><time>2026-04-03T06:11:45Z</time></trkpt><trkpt lat="44.108653181628284" lon="3.4364465913725586"><ele>875.0</ele><time>2026-04-03T06:11:46Z</time></trkpt><trkpt lat="44.10869825569234" lon="3.436677007509982"><ele>878.3333333333334</ele><time>2026-04-03T06:11:47Z</time></trkpt><trkpt lat="44.108684287006696" lon="3.4369151830674856"><ele>881.6666666666667</ele><time>2026-04-03T06:11:48Z</time></trkpt><trkpt lat="44.1086398280013" lon="3.437142032780541"><ele>885.0</ele><time>2026-04-03T06:11:49Z</time></trkpt><trkpt lat="44.1085865871188" lon="3.43737960891073"><ele>889.0</ele><time>2026-04-03T06:11:50Z</time></trkpt><trkpt lat="44.108537151514504" lon="3.437610652099094"><ele>893.0</ele><time>2026-04-03T06:11:51Z</time></trkpt><trkpt lat="44.10847967180259" lon="3.437842034356077"><ele>897.0</ele><time>2026-04-03T06:11:52Z</time></trkpt><trkpt lat="44.10844756040697" lon="3.438084993644592"><ele>901.6666666666667</ele><time>2026-04-03T06:11:53Z</time></trkpt><trkpt lat="44.10844844631455" lon="3.4383330830053813"><ele>906.3333333333334</ele><time>2026-04-03T06:11:54Z</time></trkpt><trkpt lat="44.108455173528284" lon="3.438595737196737"><ele>911.0</ele><time>2026-04-03T06:11:55Z</time></trkpt><trkpt lat="44.108461158460436" lon="3.438852509468172"><ele>914.3333333333334</ele><time>2026-04-03T06:11:56Z</time></trkpt><trkpt lat="44.10846020929421" lon="3.4391051807230615"><ele>917.6666666666667</ele><time>2026-04-03T06:11:57Z</time></trkpt><trkpt lat="44.10845492685936" lon="3.439348974694171"><ele>921.0</ele><time>2026-04-03T06:11:58Z</time></trkpt><trkpt lat="44.108450823567836" lon="3.4395550687153613"><ele>923.0</ele><time>2026-04-03T06:11:59Z</time></trkpt><trkpt lat="44.108437547082794" lon="3.439740866058577"><ele>925.0</ele><time>2026-04-03T06:12:00Z</time></trkpt><trkpt lat="44.10838451697969" lon="3.4398787528488293"><ele>927.0</ele><time>2026-04-03T06:12:01Z</time></trkpt><trkpt lat="44.10831465728149" lon="3.439989667067916"><ele>929.0</ele><time>2026-04-03T06:12:02Z</time></trkpt><trkpt lat="44.10821732792781" lon="3.4400338985749763"><ele>931.2</ele><time>2026-04-03T06:12:03Z</time></trkpt><trkpt lat="44.108119386552524" lon="3.440026659325355"><ele>933.4000000000001</ele><time>2026-04-03T06:12:04Z</time></trkpt><trkpt lat="44.10803643599164" lon="3.4399919586008045"><ele>935.6</ele><time>2026-04-03T06:12:05Z</time></trkpt><trkpt lat="44.10795403208528" lon="3.439928492860343"><ele>937.8</ele><time>2026-04-03T06:12:06Z</time></trkpt><trkpt lat="44.10787681214018" lon="3.4398132047380416"><ele>940.0</ele><time>2026-04-03T06:12:07Z</time></trkpt><trkpt lat="44.10780214882109" lon="3.4396663936992273"><ele>935.0</ele><time>2026-04-03T06:12:08Z</time></trkpt><trkpt lat="44.10770977752159" lon="3.439512153622112"><ele>930.0</ele><time>2026-04-03T06:12:09Z</time></trkpt><trkpt lat="44.10763330809039" lon="3.4393161272803425"><ele>925.0</ele><time>2026-04-03T06:12:10Z</time></trkpt><trkpt lat="44.107539645271835" lon="3.4391155610141406"><ele>925.0</ele><time>2026-04-03T06:12:11Z</time></trkpt><trkpt lat="44.10743442242234" lon="3.43889024056181"><ele>925.0</ele><time>2026-04-03T06:12:12Z</time></trkpt><trkpt lat="44.107344920764774" lon="3.4387107271815394"><ele>925.0</ele><time>2026-04-03T06:12:13Z</time></trkpt><trkpt lat="44.107247752423824" lon="3.438553121966483"><ele>924.5</ele><time>2026-04-03T06:12:14Z</time></trkpt><trkpt lat="44.10716130505165" lon="3.43840308588655"><ele>924.0</ele><time>2026-04-03T06:12:15Z</time></trkpt><trkpt lat="44.10707162297257" lon="3.4382847362176205"><ele>923.5</ele><time>2026-04-03T06:12:16Z</time></trkpt><trkpt lat="44.106966854233676" lon="3.4382284721719647"><ele>923.0</ele><time>2026-04-03T06:12:17Z</time></trkpt><trkpt lat="44.10684855649834" lon="3.4382064362442475"><ele>923.0</ele><time>2026-04-03T06:12:18Z</time></trkpt><trkpt lat="44.10670966422391" lon="3.43821706526325"><ele>923.0</ele><time>2026-04-03T06:12:19Z</time></trkpt><trkpt lat="44.10656601645105" lon="3.4382450139533685"><ele>923.0</ele><time>2026-04-03T06:12:20Z</time></trkpt><trkpt lat="44.10641922338049" lon="3.438280623670296"><ele>923.0</ele><time>2026-04-03T06:12:21Z</time></trkpt><trkpt lat="44.106271240754516" lon="3.4383357267236727"><ele>919.3333333333334</ele><time>2026-04-03T06:12:22Z</time></trkpt><trkpt lat="44.1061272763025" lon="3.43842105201759"><ele>915.6666666666667</ele><time>2026-04-03T06:12:23Z</time></trkpt><trkpt lat="44.10598925275602" lon="3.438532251418928"><ele>912.0</ele><time>2026-04-03T06:12:24Z</time></trkpt><trkpt lat="44.10586937229472" lon="3.438684857312398"><ele>911.0</ele><time>2026-04-03T06:12:25Z</time></trkpt><trkpt lat="44.105760258668845" lon="3.4388578926946134"><ele>910.0</ele><time>2026-04-03T06:12:26Z</time></trkpt><trkpt lat="44.105654515832676" lon="3.439040863524966"><ele>909.0</ele><time>2026-04-03T06:12:27Z</time></trkpt><trkpt lat="44.10554231518194" lon="3.4392092491515616"><ele>909.0</ele><time>2026-04-03T06:12:28Z</time></trkpt><trkpt lat="44.105427112042854" lon="3.439379634061158"><ele>909.0</ele><time>2026-04-03T06:12:29Z</time></trkpt><trkpt lat="44.105337627010044" lon="3.4395952115428257"><ele>909.0</ele><time>2026-04-03T06:12:30Z</time></trkpt><trkpt lat="44.1052469529754" lon="3.439818985233198"><ele>913.3333333333333</ele><time>2026-04-03T06:12:31Z</time></trkpt><trkpt lat="44.10513954636449" lon="3.440050526543938"><ele>917.6666666666666</ele><time>2026-04-03T06:12:32Z</time></trkpt><trkpt lat="44.1050128534224" lon="3.4402973686072063"><ele>922.0</ele><time>2026-04-03T06:12:33Z</time></trkpt><trkpt lat="44.10487234865047" lon="3.440545739138445"><ele>922.0</ele><time>2026-04-03T06:12:34Z</time></trkpt><trkpt lat="44.1047276089936" lon="3.440773160581796"><ele>922.0</ele><time>2026-04-03T06:12:35Z</time></trkpt><trkpt lat="44.104585870973466" lon="3.4409737722447207"><ele>922.0</ele><time>2026-04-03T06:12:36Z</time></trkpt><trkpt lat="44.10443786127873" lon="3.441169873188832"><ele>921.3333333333333</ele><time>2026-04-03T06:12:37Z</time></trkpt><trkpt lat="44.10429225623447" lon="3.4413669662428887"><ele>920.6666666666667</ele><time>2026-04-03T06:12:38Z</time></trkpt><trkpt lat="44.104134308139415" lon="3.441539479278711"><ele>920.0</ele><time>2026-04-03T06:12:39Z</time></trkpt><trkpt lat="44.10398090558786" lon="3.4416806706318863"><ele>920.0</ele><time>2026-04-03T06:12:40Z</time></trkpt><trkpt lat="44.10384287277929" lon="3.4418443652211397"><ele>920.0</ele><time>2026-04-03T06:12:41Z</time></trkpt><trkpt lat="44.10373285154602" lon="3.442044874793442"><ele>920.0</ele><time>2026-04-03T06:12:42Z</time></trkpt><trkpt lat="44.103634398884935" lon="3.442271037533048"><ele>910.5</ele><time>2026-04-03T06:12:43Z</time></trkpt><trkpt lat="44.10353123048358" lon="3.442494703535021"><ele>901.0</ele><time>2026-04-03T06:12:44Z</time></trkpt><trkpt lat="44.10308866118464" lon="3.441959040049744"><ele>901.0</ele><time>2026-04-03T06:12:45Z</time></trkpt><trkpt lat="44.10295653715914" lon="3.442106170465925"><ele>901.0</ele><time>2026-04-03T06:12:46Z</time></trkpt><trkpt lat="44.10282605252305" lon="3.4422432586364957"><ele>901.0</ele><time>2026-04-03T06:12:47Z</time></trkpt><trkpt lat="44.102679189781654" lon="3.4423910223827296"><ele>916.5</ele><time>2026-04-03T06:12:48Z</time></trkpt><trkpt lat="44.102688826464835" lon="3.4429632980539693"><ele>932.0</ele><time>2026-04-03T06:12:49Z</time></trkpt><trkpt lat="44.10253246003014" lon="3.4431021392776664"><ele>930.3333333333334</ele><time>2026-04-03T06:12:50Z</time></trkpt><trkpt lat="44.102390793424846" lon="3.443237810446557"><ele>928.6666666666667</ele><time>2026-04-03T06:12:51Z</time></trkpt><trkpt lat="44.10227387583687" lon="3.4434193461464164"><ele>927.0</ele><time>2026-04-03T06:12:52Z</time></trkpt><trkpt lat="44.10217533800566" lon="3.4436263448146307"><ele>930.6666666666667</ele><time>2026-04-03T06:12:53Z</time></trkpt><trkpt lat="44.10212018815805" lon="3.4438322370807435"><ele>934.3333333333334</ele><time>2026-04-03T06:12:54Z</time></trkpt><trkpt lat="44.102093394210286" lon="3.4440380809316338"><ele>938.0</ele><time>2026-04-03T06:12:55Z</time></trkpt><trkpt lat="44.102100754462306" lon="3.44424739321446"><ele>938.0</ele><time>2026-04-03T06:12:56Z</time></trkpt><trkpt lat="44.10213838594218" lon="3.4444887359630303"><ele>938.0</ele><time>2026-04-03T06:12:57Z</time></trkpt><trkpt lat="44.10218566580592" lon="3.444759709295666"><ele>938.0</ele><time>2026-04-03T06:12:58Z</time></trkpt><trkpt lat="44.10221280628942" lon="3.4450270706204087"><ele>938.0</ele><time>2026-04-03T06:12:59Z</time></trkpt><trkpt lat="44.10221297923231" lon="3.4452685004221917"><ele>938.0</ele><time>2026-04-03T06:13:00Z</time></trkpt><trkpt lat="44.10218224531754" lon="3.445480117791304"><ele>938.0</ele><time>2026-04-03T06:13:01Z</time></trkpt><trkpt lat="44.10217953814681" lon="3.445658933360998"><ele>937.3333333333334</ele><time>2026-04-03T06:13:02Z</time></trkpt><trkpt lat="44.10223164546472" lon="3.445856828343756"><ele>936.6666666666667</ele><time>2026-04-03T06:13:03Z</time></trkpt><trkpt lat="44.10232813828372" lon="3.446063781475221"><ele>936.0</ele><time>2026-04-03T06:13:04Z</time></trkpt><trkpt lat="44.10243314511214" lon="3.4462832868753446"><ele>947.6666666666667</ele><time>2026-04-03T06:13:05Z</time></trkpt><trkpt lat="44.10250578365978" lon="3.4465235928864977"><ele>959.3333333333334</ele><time>2026-04-03T06:13:06Z</time></trkpt><trkpt lat="44.10253316352796" lon="3.4467552040102465"><ele>971.0</ele><time>2026-04-03T06:13:07Z</time></trkpt><trkpt lat="44.10255066082168" lon="3.446983374849974"><ele>967.3333333333334</ele><time>2026-04-03T06:13:08Z</time></trkpt><trkpt lat="44.10260175503458" lon="3.447188726727294"><ele>963.6666666666667</ele><time>2026-04-03T06:13:09Z</time></trkpt><trkpt lat="44.10269857704354" lon="3.4473807023310976"><ele>960.0</ele><time>2026-04-03T06:13:10Z</time></trkpt><trkpt lat="44.10284234255456" lon="3.4475591981359544"><ele>960.0</ele><time>2026-04-03T06:13:11Z</time></trkpt><trkpt lat="44.102977708586266" lon="3.4477582347108138"><ele>960.0</ele><time>2026-04-03T06:13:12Z</time></trkpt><trkpt lat="44.103103464484576" lon="3.44798578166254"><ele>960.0</ele><time>2026-04-03T06:13:13Z</time></trkpt><trkpt lat="44.103195605531965" lon="3.44824243720414"><ele>967.3333333333333</ele><time>2026-04-03T06:13:14Z</time></trkpt><trkpt lat="44.103284316957875" lon="3.448501902380828"><ele>974.6666666666666</ele><time>2026-04-03T06:13:15Z</time></trkpt><trkpt lat="44.10337408665684" lon="3.4487497848465454"><ele>982.0</ele><time>2026-04-03T06:13:16Z</time></trkpt><trkpt lat="44.10345436489873" lon="3.4489893737393684"><ele>982.0</ele><time>2026-04-03T06:13:17Z</time></trkpt><trkpt lat="44.10351339242463" lon="3.4492400746720313"><ele>982.0</ele><time>2026-04-03T06:13:18Z</time></trkpt><trkpt lat="44.103549764967696" lon="3.4494964321199957"><ele>982.0</ele><time>2026-04-03T06:13:19Z</time></trkpt><trkpt lat="44.10356750108632" lon="3.449753754773557"><ele>981.6666666666666</ele><time>2026-04-03T06:13:20Z</time></trkpt><trkpt lat="44.103555553568945" lon="3.4500168401830695"><ele>981.3333333333333</ele><time>2026-04-03T06:13:21Z</time></trkpt><trkpt lat="44.10352684027667" lon="3.450270195526279"><ele>981.0</ele><time>2026-04-03T06:13:22Z</time></trkpt><trkpt lat="44.10349144523521" lon="3.4505394773443"><ele>983.0</ele><time>2026-04-03T06:13:23Z</time></trkpt><trkpt lat="44.10346823579894" lon="3.4507952343819084"><ele>985.0</ele><time>2026-04-03T06:13:24Z</time></trkpt><trkpt lat="44.10345272645567" lon="3.451014040736016"><ele>987.0</ele><time>2026-04-03T06:13:25Z</time></trkpt><trkpt lat="44.10342096155005" lon="3.45121206808308"><ele>992.0</ele><time>2026-04-03T06:13:26Z</time></trkpt><trkpt lat="44.10336863915003" lon="3.4514283583780476"><ele>997.0</ele><time>2026-04-03T06:13:27Z</time></trkpt><trkpt lat="44.103300930611915" lon="3.451653409030224"><ele>1002.0</ele><time>2026-04-03T06:13:28Z</time></trkpt><trkpt lat="44.10322291636941" lon="3.451882560870179"><ele>998.3333333333333</ele><time>2026-04-03T06:13:29Z</time></trkpt><trkpt lat="44.103124947399856" lon="3.452096587931692"><ele>994.6666666666666</ele><time>2026-04-03T06:13:30Z</time></trkpt><trkpt lat="44.10299444550412" lon="3.452298852901557"><ele>991.0</ele><time>2026-04-03T06:13:31Z</time></trkpt><trkpt lat="44.10284177901652" lon="3.4524911064239108"><ele>991.0</ele><time>2026-04-03T06:13:32Z</time></trkpt><trkpt lat="44.102694040719506" lon="3.4527024521041545"><ele>991.0</ele><time>2026-04-03T06:13:33Z</time></trkpt><trkpt lat="44.10255949872368" lon="3.4529470106689493"><ele>991.0</ele><time>2026-04-03T06:13:34Z</time></trkpt><trkpt lat="44.10244286387965" lon="3.4531903910448682"><ele>989.6666666666666</ele><time>2026-04-03T06:13:35Z</time></trkpt><trkpt lat="44.10232482277721" lon="3.4534090899048535"><ele>988.3333333333333</ele><time>2026-04-03T06:13:36Z</time></trkpt><trkpt lat="44.102184812609735" lon="3.4535723853723623"><ele>987.0</ele><time>2026-04-03T06:13:37Z</time></trkpt><trkpt lat="44.10201918862653" lon="3.4536923798831323"><ele>986.6666666666667</ele><time>2026-04-03T06:13:38Z</time></trkpt><trkpt lat="44.101849039868505" lon="3.453794222688595"><ele>986.3333333333334</ele><time>2026-04-03T06:13:39Z</time></trkpt><trkpt lat="44.10168277010538" lon="3.453905386895279"><ele>986.0</ele><time>2026-04-03T06:13:40Z</time></trkpt><trkpt lat="44.10154318708053" lon="3.454066147772919"><ele>986.0</ele><time>2026-04-03T06:13:41Z</time></trkpt><trkpt lat="44.10142886712551" lon="3.454279538886629"><ele>986.0</ele><time>2026-04-03T06:13:42Z</time></trkpt><trkpt lat="44.101351284829214" lon="3.4544855468851057"><ele>986.0</ele><time>2026-04-03T06:13:43Z</time></trkpt><trkpt lat="44.1013071405798" lon="3.4546799458540858"><ele>986.3333333333334</ele><time>2026-04-03T06:13:44Z</time></trkpt><trkpt lat="44.10130184134102" lon="3.4548802765678626"><ele>986.6666666666667</ele><time>2026-04-03T06:13:45Z</time></trkpt><trkpt lat="44.101331280682246" lon="3.455094816871039"><ele>987.0</ele><time>2026-04-03T06:13:46Z</time></trkpt><trkpt lat="44.101384528780784" lon="3.4553395654678503"><ele>986.6666666666667</ele><time>2026-04-03T06:13:47Z</time></trkpt><trkpt lat="44.10141892623401" lon="3.4556055109436183"><ele>986.3333333333334</ele><time>2026-04-03T06:13:48Z</time></trkpt><trkpt lat="44.101452329522296" lon="3.4558947659861725"><ele>986.0</ele><time>2026-04-03T06:13:49Z</time></trkpt><trkpt lat="44.10149803904982" lon="3.4561781988004245"><ele>982.6666666666667</ele><time>2026-04-03T06:13:50Z</time></trkpt><trkpt lat="44.10157876593761" lon="3.456433249411093"><ele>979.3333333333333</ele><time>2026-04-03T06:13:51Z</time></trkpt><trkpt lat="44.10168492452501" lon="3.456664245664703"><ele>976.0</ele><time>2026-04-03T06:13:52Z</time></trkpt><trkpt lat="44.10178792229707" lon="3.456906986361422"><ele>988.3333333333333</ele><time>2026-04-03T06:13:53Z</time></trkpt><trkpt lat="44.10187666164995" lon="3.4571759269759723"><ele>1000.6666666666667</ele><time>2026-04-03T06:13:54Z</time></trkpt><trkpt lat="44.10192735064174" lon="3.457458730225072"><ele>1013.0</ele><time>2026-04-03T06:13:55Z</time></trkpt><trkpt lat="44.10195659189266" lon="3.457740850689162"><ele>1010.6666666666667</ele><time>2026-04-03T06:13:56Z</time></trkpt><trkpt lat="44.101979554588425" lon="3.4580112351572776"><ele>1008.3333333333333</ele><time>2026-04-03T06:13:57Z</time></trkpt><trkpt lat="44.10201752774901" lon="3.4582773299867515"><ele>1006.0</ele><time>2026-04-03T06:13:58Z</time></trkpt><trkpt lat="44.10208653920186" lon="3.4585172787468603"><ele>1006.0</ele><time>2026-04-03T06:13:59Z</time></trkpt><trkpt lat="44.102192692287296" lon="3.458732319619642"><ele>1006.0</ele><time>2026-04-03T06:14:00Z</time></trkpt><trkpt lat="44.10230860037619" lon="3.4589444245023167"><ele>1006.0</ele><time>2026-04-03T06:14:01Z</time></trkpt><trkpt lat="44.102408481387286" lon="3.459117632981302"><ele>1015.6666666666666</ele><time>2026-04-03T06:14:02Z</time></trkpt><trkpt lat="44.10252224248182" lon="3.459250699833935"><ele>1025.3333333333333</ele><time>2026-04-03T06:14:03Z</time></trkpt><trkpt lat="44.102664477361195" lon="3.4593421586896254"><ele>1035.0</ele><time>2026-04-03T06:14:04Z</time></trkpt><trkpt lat="44.10282420004243" lon="3.4593566943997214"><ele>1035.0</ele><time>2026-04-03T06:14:05Z</time></trkpt><trkpt lat="44.1029817923847" lon="3.4593251779582643"><ele>1035.0</ele><time>2026-04-03T06:14:06Z</time></trkpt><trkpt lat="44.10315483407684" lon="3.4592770852904176"><ele>1035.0</ele><time>2026-04-03T06:14:07Z</time></trkpt><trkpt lat="44.10333876454285" lon="3.459241084686176"><ele>1039.6666666666667</ele><time>2026-04-03T06:14:08Z</time></trkpt><trkpt lat="44.10351859302963" lon="3.459261883213072"><ele>1044.3333333333335</ele><time>2026-04-03T06:14:09Z</time></trkpt><trkpt lat="44.103689957499384" lon="3.459324537999381"><ele>1049.0</ele><time>2026-04-03T06:14:10Z</time></trkpt><trkpt lat="44.10387835582744" lon="3.459375522502525"><ele>1049.0</ele><time>2026-04-03T06:14:11Z</time></trkpt><trkpt lat="44.10407337206581" lon="3.4593772078918867"><ele>1049.0</ele><time>2026-04-03T06:14:12Z</time></trkpt><trkpt lat="44.10429025083164" lon="3.4593526882940004"><ele>1049.0</ele><time>2026-04-03T06:14:13Z</time></trkpt><trkpt lat="44.104499544032485" lon="3.4593377746136214"><ele>1048.0</ele><time>2026-04-03T06:14:14Z</time></trkpt><trkpt lat="44.1047150911485" lon="3.4593176534284273"><ele>1047.0</ele><time>2026-04-03T06:14:15Z</time></trkpt><trkpt lat="44.10491994643014" lon="3.4593030663177546"><ele>1046.0</ele><time>2026-04-03T06:14:16Z</time></trkpt><trkpt lat="44.10513503051262" lon="3.459299488488704"><ele>1048.0</ele><time>2026-04-03T06:14:17Z</time></trkpt><trkpt lat="44.10534720660949" lon="3.459316075797437"><ele>1050.0</ele><time>2026-04-03T06:14:18Z</time></trkpt><trkpt lat="44.10555385220261" lon="3.459352839546394"><ele>1052.0</ele><time>2026-04-03T06:14:19Z</time></trkpt><trkpt lat="44.10575142618689" lon="3.459383271940292"><ele>1055.0</ele><time>2026-04-03T06:14:20Z</time></trkpt><trkpt lat="44.10592397257222" lon="3.4593978569880584"><ele>1058.0</ele><time>2026-04-03T06:14:21Z</time></trkpt><trkpt lat="44.10608410466903" lon="3.4593867408850203"><ele>1061.0</ele><time>2026-04-03T06:14:22Z</time></trkpt><trkpt lat="44.106224618002535" lon="3.459351306540032"><ele>1061.0</ele><time>2026-04-03T06:14:23Z</time></trkpt><trkpt lat="44.106355330068254" lon="3.459344510729409"><ele>1061.0</ele><time>2026-04-03T06:14:24Z</time></trkpt><trkpt lat="44.106469806712255" lon="3.459402102400439"><ele>1061.0</ele><time>2026-04-03T06:14:25Z</time></trkpt><trkpt lat="44.106561449660354" lon="3.4595144753387004"><ele>1061.0</ele><time>2026-04-03T06:14:26Z</time></trkpt><trkpt lat="44.106614634460364" lon="3.459648643566787"><ele>1059.25</ele><time>2026-04-03T06:14:27Z</time></trkpt><trkpt lat="44.10662736462375" lon="3.459825162285206"><ele>1057.5</ele><time>2026-04-03T06:14:28Z</time></trkpt><trkpt lat="44.10662515608807" lon="3.460017954878395"><ele>1055.75</ele><time>2026-04-03T06:14:29Z</time></trkpt><trkpt lat="44.10662319512167" lon="3.46021206614138"><ele>1054.0</ele><time>2026-04-03T06:14:30Z</time></trkpt><trkpt lat="44.106660160949986" lon="3.460379688882812"><ele>1053.0</ele><time>2026-04-03T06:14:31Z</time></trkpt><trkpt lat="44.10673837867792" lon="3.460524634647752"><ele>1052.0</ele><time>2026-04-03T06:14:32Z</time></trkpt><trkpt lat="44.10684547878795" lon="3.4606457436431675"><ele>1051.0</ele><time>2026-04-03T06:14:33Z</time></trkpt><trkpt lat="44.10697188169381" lon="3.460738972701593"><ele>1050.0</ele><time>2026-04-03T06:14:34Z</time></trkpt><trkpt lat="44.10709009783048" lon="3.4608508416294876"><ele>1050.0</ele><time>2026-04-03T06:14:35Z</time></trkpt><trkpt lat="44.10719856673177" lon="3.4610128651707197"><ele>1050.0</ele><time>2026-04-03T06:14:36Z</time></trkpt><trkpt lat="44.10727165979993" lon="3.461235598033417"><ele>1050.0</ele><time>2026-04-03T06:14:37Z</time></trkpt><trkpt lat="44.10734844574258" lon="3.4614447765687824"><ele>1052.6666666666667</ele><time>2026-04-03T06:14:38Z</time></trkpt><trkpt lat="44.10739830081608" lon="3.4616597663914725"><ele>1055.3333333333335</ele><time>2026-04-03T06:14:39Z</time></trkpt><trkpt lat="44.10744008901792" lon="3.4618886308737626"><ele>1058.0</ele><time>2026-04-03T06:14:40Z</time></trkpt><trkpt lat="44.107484343746016" lon="3.46211018563921"><ele>1061.0</ele><time>2026-04-03T06:14:41Z</time></trkpt><trkpt lat="44.107510118055984" lon="3.4623319011069844"><ele>1064.0</ele><time>2026-04-03T06:14:42Z</time></trkpt><trkpt lat="44.10757433915656" lon="3.462536512660856"><ele>1067.0</ele><time>2026-04-03T06:14:43Z</time></trkpt><trkpt lat="44.10767665206169" lon="3.4627171428430574"><ele>1067.0</ele><time>2026-04-03T06:14:44Z</time></trkpt><trkpt lat="44.10780720506391" lon="3.4628761716662866"><ele>1067.0</ele><time>2026-04-03T06:14:45Z</time></trkpt><trkpt lat="44.10795410480965" lon="3.463049743496442"><ele>1067.0</ele><time>2026-04-03T06:14:46Z</time></trkpt><trkpt lat="44.10809827191133" lon="3.4632678170286884"><ele>1068.6666666666667</ele><time>2026-04-03T06:14:47Z</time></trkpt><trkpt lat="44.10826635315543" lon="3.463455398074618"><ele>1070.3333333333333</ele><time>2026-04-03T06:14:48Z</time></trkpt><trkpt lat="44.108420592052" lon="3.46366483348815"><ele>1072.0</ele><time>2026-04-03T06:14:49Z</time></trkpt><trkpt lat="44.10855284119761" lon="3.4638451208953076"><ele>1073.0</ele><time>2026-04-03T06:14:50Z</time></trkpt><trkpt lat="44.10866640503965" lon="3.4640272045357525"><ele>1074.0</ele><time>2026-04-03T06:14:51Z</time></trkpt><trkpt lat="44.108745318189825" lon="3.4642585878172616"><ele>1075.0</ele><time>2026-04-03T06:14:52Z</time></trkpt><trkpt lat="44.10884713577311" lon="3.46447671096912"><ele>1077.0</ele><time>2026-04-03T06:14:53Z</time></trkpt><trkpt lat="44.10897561092498" lon="3.4647077421371746"><ele>1079.0</ele><time>2026-04-03T06:14:54Z</time></trkpt><trkpt lat="44.10912483572917" lon="3.464917646037648"><ele>1081.0</ele><time>2026-04-03T06:14:55Z</time></trkpt><trkpt lat="44.10926399110232" lon="3.4651223405151583"><ele>1081.0</ele><time>2026-04-03T06:14:56Z</time></trkpt><trkpt lat="44.10941135470663" lon="3.465278319251058"><ele>1081.0</ele><time>2026-04-03T06:14:57Z</time></trkpt><trkpt lat="44.109519792908905" lon="3.465438267564296"><ele>1081.0</ele><time>2026-04-03T06:14:58Z</time></trkpt><trkpt lat="44.10963576403329" lon="3.4655883034223542"><ele>1081.5</ele><time>2026-04-03T06:14:59Z</time></trkpt><trkpt lat="44.10977091074178" lon="3.465692439316912"><ele>1082.0</ele><time>2026-04-03T06:15:00Z</time></trkpt><trkpt lat="44.10990322267742" lon="3.46574679380796"><ele>1082.5</ele><time>2026-04-03T06:15:01Z</time></trkpt><trkpt lat="44.11005606831792" lon="3.46575716298551"><ele>1083.0</ele><time>2026-04-03T06:15:02Z</time></trkpt><trkpt lat="44.11020295676506" lon="3.465790211968123"><ele>1083.0</ele><time>2026-04-03T06:15:03Z</time></trkpt><trkpt lat="44.11032037021261" lon="3.4658496871063336"><ele>1083.0</ele><time>2026-04-03T06:15:04Z</time></trkpt><trkpt lat="44.1104056448972" lon="3.4659462966120183"><ele>1083.0</ele><time>2026-04-03T06:15:05Z</time></trkpt><trkpt lat="44.11047406282389" lon="3.466086593571824"><ele>1083.0</ele><time>2026-04-03T06:15:06Z</time></trkpt><trkpt lat="44.11056601931017" lon="3.4662518430116718"><ele>1084.0</ele><time>2026-04-03T06:15:07Z</time></trkpt><trkpt lat="44.11067593139719" lon="3.4664140845763334"><ele>1085.0</ele><time>2026-04-03T06:15:08Z</time></trkpt><trkpt lat="44.110765557527344" lon="3.466593852809158"><ele>1086.0</ele><time>2026-04-03T06:15:09Z</time></trkpt><trkpt lat="44.11086600538964" lon="3.466764964673023"><ele>1086.6666666666667</ele><time>2026-04-03T06:15:10Z</time></trkpt><trkpt lat="44.11095738788361" lon="3.4669472382260684"><ele>1087.3333333333335</ele><time>2026-04-03T06:15:11Z</time></trkpt><trkpt lat="44.11100425633003" lon="3.46715197571837"><ele>1088.0</ele><time>2026-04-03T06:15:12Z</time></trkpt><trkpt lat="44.11106234320154" lon="3.467354276759158"><ele>1089.25</ele><time>2026-04-03T06:15:13Z</time></trkpt><trkpt lat="44.11109612378329" lon="3.4675616630084103"><ele>1090.5</ele><time>2026-04-03T06:15:14Z</time></trkpt><trkpt lat="44.11113872716754" lon="3.4677605753408267"><ele>1091.75</ele><time>2026-04-03T06:15:15Z</time></trkpt><trkpt lat="44.111186439060106" lon="3.4679395822555423"><ele>1093.0</ele><time>2026-04-03T06:15:16Z</time></trkpt><trkpt lat="44.11125208257385" lon="3.4681073061135113"><ele>1093.6666666666665</ele><time>2026-04-03T06:15:17Z</time></trkpt><trkpt lat="44.11135241068131" lon="3.4682769163515283"><ele>1094.3333333333333</ele><time>2026-04-03T06:15:18Z</time></trkpt><trkpt lat="44.1114825070016" lon="3.468448983953762"><ele>1095.0</ele><time>2026-04-03T06:15:19Z</time></trkpt><trkpt lat="44.11160802120312" lon="3.468639542958258"><ele>1096.0</ele><time>2026-04-03T06:15:20Z</time></trkpt><trkpt lat="44.111712566205206" lon="3.468853914139364"><ele>1097.0</ele><time>2026-04-03T06:15:21Z</time></trkpt><trkpt lat="44.11183438456209" lon="3.4690362767814507"><ele>1098.0</ele><time>2026-04-03T06:15:22Z</time></trkpt><trkpt lat="44.11194731736146" lon="3.4692225893687882"><ele>1098.0</ele><time>2026-04-03T06:15:23Z</time></trkpt><trkpt lat="44.11208246996816" lon="3.469394265866855"><ele>1098.0</ele><time>2026-04-03T06:15:24Z</time></trkpt><trkpt lat="44.11224787413779" lon="3.4695473382353033"><ele>1098.0</ele><time>2026-04-03T06:15:25Z</time></trkpt><trkpt lat="44.11241600274828" lon="3.4697046727045655"><ele>1099.0</ele><time>2026-04-03T06:15:26Z</time></trkpt><trkpt lat="44.11257354616471" lon="3.469865932339152"><ele>1100.0</ele><time>2026-04-03T06:15:27Z</time></trkpt><trkpt lat="44.11271772249051" lon="3.470042289589018"><ele>1101.0</ele><time>2026-04-03T06:15:28Z</time></trkpt><trkpt lat="44.11284877010299" lon="3.47022885267212"><ele>1101.0</ele><time>2026-04-03T06:15:29Z</time></trkpt><trkpt lat="44.1129825092431" lon="3.470423338366307"><ele>1101.0</ele><time>2026-04-03T06:15:30Z</time></trkpt><trkpt lat="44.113113422981584" lon="3.4706216960448923"><ele>1101.0</ele><time>2026-04-03T06:15:31Z</time></trkpt><trkpt lat="44.11324263305852" lon="3.4708247404046095"><ele>1102.0</ele><time>2026-04-03T06:15:32Z</time></trkpt><trkpt lat="44.11337353202502" lon="3.471019224647056"><ele>1103.0</ele><time>2026-04-03T06:15:33Z</time></trkpt><trkpt lat="44.11350796109165" lon="3.4712100976786355"><ele>1104.0</ele><time>2026-04-03T06:15:34Z</time></trkpt><trkpt lat="44.113636187902564" lon="3.471403560101234"><ele>1106.3333333333333</ele><time>2026-04-03T06:15:35Z</time></trkpt><trkpt lat="44.11376363900098" lon="3.4716078544511206"><ele>1108.6666666666665</ele><time>2026-04-03T06:15:36Z</time></trkpt><trkpt lat="44.11387882412938" lon="3.471802629764459"><ele>1111.0</ele><time>2026-04-03T06:15:37Z</time></trkpt><trkpt lat="44.113978685041225" lon="3.471981796373544"><ele>1110.75</ele><time>2026-04-03T06:15:38Z</time></trkpt><trkpt lat="44.114066535408256" lon="3.472151129936869"><ele>1110.5</ele><time>2026-04-03T06:15:39Z</time></trkpt><trkpt lat="44.114140524780154" lon="3.4723083968220054"><ele>1110.25</ele><time>2026-04-03T06:15:40Z</time></trkpt><trkpt lat="44.11422199163966" lon="3.4724817705917115"><ele>1110.0</ele><time>2026-04-03T06:15:41Z</time></trkpt><trkpt lat="44.1143062358591" lon="3.4726577489408683"><ele>1110.0</ele><time>2026-04-03T06:15:42Z</time></trkpt><trkpt lat="44.1143843229481" lon="3.4728322815351906"><ele>1110.0</ele><time>2026-04-03T06:15:43Z</time></trkpt><trkpt lat="44.11446025763503" lon="3.47299563138773"><ele>1110.0</ele><time>2026-04-03T06:15:44Z</time></trkpt><trkpt lat="44.11451558182608" lon="3.473160306988538"><ele>1110.0</ele><time>2026-04-03T06:15:45Z</time></trkpt><trkpt lat="44.11452632960214" lon="3.473353671673141"><ele>1109.25</ele><time>2026-04-03T06:15:46Z</time></trkpt><trkpt lat="44.11453488187386" lon="3.4735605917940515"><ele>1108.5</ele><time>2026-04-03T06:15:47Z</time></trkpt><trkpt lat="44.11454289641572" lon="3.4737730278647394"><ele>1107.75</ele><time>2026-04-03T06:15:48Z</time></trkpt><trkpt lat="44.114562143479496" lon="3.4739743871365656"><ele>1107.0</ele><time>2026-04-03T06:15:49Z</time></trkpt><trkpt lat="44.11457309829979" lon="3.4741646937857107"><ele>1107.0</ele><time>2026-04-03T06:15:50Z</time></trkpt><trkpt lat="44.114587538496096" lon="3.4743438950446204"><ele>1107.0</ele><time>2026-04-03T06:15:51Z</time></trkpt><trkpt lat="44.11460136783392" lon="3.4745098285524967"><ele>1107.0</ele><time>2026-04-03T06:15:52Z</time></trkpt><trkpt lat="44.11461696583542" lon="3.4746643836969757"><ele>1107.0</ele><time>2026-04-03T06:15:53Z</time></trkpt><trkpt lat="44.114629492493364" lon="3.4748058137706384"><ele>1106.6</ele><time>2026-04-03T06:15:54Z</time></trkpt><trkpt lat="44.114635892768945" lon="3.4749373690086363"><ele>1106.2</ele><time>2026-04-03T06:15:55Z</time></trkpt><trkpt lat="44.114637952055894" lon="3.475057910929316"><ele>1105.8</ele><time>2026-04-03T06:15:56Z</time></trkpt><trkpt lat="44.11455405690067" lon="3.475158991697116"><ele>1105.4</ele><time>2026-04-03T06:15:57Z</time></trkpt><trkpt lat="44.11447121880388" lon="3.4752744922075207"><ele>1105.0</ele><time>2026-04-03T06:15:58Z</time></trkpt><trkpt lat="44.1143715640153" lon="3.47537514983546"><ele>1104.75</ele><time>2026-04-03T06:15:59Z</time></trkpt><trkpt lat="44.11426627967143" lon="3.4754907387128435"><ele>1104.5</ele><time>2026-04-03T06:16:00Z</time></trkpt><trkpt lat="44.11413376840693" lon="3.47559022809747"><ele>1104.25</ele><time>2026-04-03T06:16:01Z</time></trkpt><trkpt lat="44.11399749113874" lon="3.4757024018307834"><ele>1104.0</ele><time>2026-04-03T06:16:02Z</time></trkpt><trkpt lat="44.11386631884334" lon="3.4758107318311295"><ele>1103.3333333333333</ele><time>2026-04-03T06:16:03Z</time></trkpt><trkpt lat="44.11374025546169" lon="3.4759306731441093"><ele>1102.6666666666665</ele><time>2026-04-03T06:16:04Z</time></trkpt><trkpt lat="44.11361771482201" lon="3.476050701528598"><ele>1102.0</ele><time>2026-04-03T06:16:05Z</time></trkpt><trkpt lat="44.11349239784863" lon="3.476171728271618"><ele>1102.3333333333333</ele><time>2026-04-03T06:16:06Z</time></trkpt><trkpt lat="44.113376995260204" lon="3.476303506904105"><ele>1102.6666666666667</ele><time>2026-04-03T06:16:07Z</time></trkpt><trkpt lat="44.113270332971695" lon="3.4764646929239107"><ele>1103.0</ele><time>2026-04-03T06:16:08Z</time></trkpt><trkpt lat="44.113182987476875" lon="3.4766463622532107"><ele>1103.0</ele><time>2026-04-03T06:16:09Z</time></trkpt><trkpt lat="44.113099428864004" lon="3.476846657867586"><ele>1103.0</ele><time>2026-04-03T06:16:10Z</time></trkpt><trkpt lat="44.113031046366615" lon="3.4770585246086596"><ele>1103.0</ele><time>2026-04-03T06:16:11Z</time></trkpt><trkpt lat="44.11297746631741" lon="3.47727486419579"><ele>1103.3333333333335</ele><time>2026-04-03T06:16:12Z</time></trkpt><trkpt lat="44.11293487840128" lon="3.477497757621925"><ele>1103.6666666666667</ele><time>2026-04-03T06:16:13Z</time></trkpt><trkpt lat="44.11289900355243" lon="3.4777302242581607"><ele>1104.0</ele><time>2026-04-03T06:16:14Z</time></trkpt><trkpt lat="44.11286831374494" lon="3.477975428042075"><ele>1104.0</ele><time>2026-04-03T06:16:15Z</time></trkpt><trkpt lat="44.112847035406595" lon="3.4782003376075963"><ele>1104.0</ele><time>2026-04-03T06:16:16Z</time></trkpt><trkpt lat="44.11283559849627" lon="3.4784150061814487"><ele>1104.0</ele><time>2026-04-03T06:16:17Z</time></trkpt><trkpt lat="44.112834072803466" lon="3.4786317321219324"><ele>1104.0</ele><time>2026-04-03T06:16:18Z</time></trkpt><trkpt lat="44.11283663450022" lon="3.4788417053220635"><ele>1104.0</ele><time>2026-04-03T06:16:19Z</time></trkpt><trkpt lat="44.112844053208015" lon="3.479046738913597"><ele>1104.0</ele><time>2026-04-03T06:16:20Z</time></trkpt><trkpt lat="44.11285557007629" lon="3.4792293413775064"><ele>1104.0</ele><time>2026-04-03T06:16:21Z</time></trkpt><trkpt lat="44.112882208219744" lon="3.4794002793762493"><ele>1104.0</ele><time>2026-04-03T06:16:22Z</time></trkpt><trkpt lat="44.11293251366937" lon="3.4795437841624675"><ele>1104.0</ele><time>2026-04-03T06:16:23Z</time></trkpt><trkpt lat="44.11298302801094" lon="3.4796556074299008"><ele>1104.0</ele><time>2026-04-03T06:16:24Z</time></trkpt><trkpt lat="44.11301742439539" lon="3.479729466543179"><ele>1104.0</ele><time>2026-04-03T06:16:25Z</time></trkpt><trkpt lat="44.11286983910821" lon="3.4798566220824876"><ele>1104.0</ele><time>2026-04-03T06:16:27Z</time></trkpt><trkpt lat="44.1127732076366" lon="3.4799117951479777"><ele>1104.0</ele><time>2026-04-03T06:16:28Z</time></trkpt><trkpt lat="44.1126880626917" lon="3.479970279684298"><ele>1104.0</ele><time>2026-04-03T06:16:29Z</time></trkpt><trkpt lat="44.112616844792015" lon="3.4800010032278927"><ele>1104.0</ele><time>2026-04-03T06:16:30Z</time></trkpt><trkpt lat="44.11256350142002" lon="3.480049519423201"><ele>1104.0</ele><time>2026-04-03T06:16:32Z</time></trkpt><trkpt lat="44.11248083403734" lon="3.4801810934507973"><ele>1104.0</ele><time>2026-04-03T06:17:30Z</time></trkpt><trkpt lat="44.112445056253186" lon="3.4802780537006757"><ele>1104.0</ele><time>2026-04-03T06:17:31Z</time></trkpt><trkpt lat="44.112403828084034" lon="3.4803995737918623"><ele>1104.0</ele><time>2026-04-03T06:17:32Z</time></trkpt><trkpt lat="44.11234249957646" lon="3.4805424181634996"><ele>1104.0</ele><time>2026-04-03T06:17:33Z</time></trkpt><trkpt lat="44.112263567009485" lon="3.4807084165593825"><ele>1104.0</ele><time>2026-04-03T06:17:34Z</time></trkpt><trkpt lat="44.112186903883625" lon="3.480877443503813"><ele>1104.0</ele><time>2026-04-03T06:17:35Z</time></trkpt><trkpt lat="44.1121078814798" lon="3.4810577436262036"><ele>1103.6666666666667</ele><time>2026-04-03T06:17:36Z</time></trkpt><trkpt lat="44.11201707988269" lon="3.481265999964243"><ele>1103.3333333333335</ele><time>2026-04-03T06:17:37Z</time></trkpt><trkpt lat="44.111921874767155" lon="3.481479450470705"><ele>1103.0</ele><time>2026-04-03T06:17:38Z</time></trkpt><trkpt lat="44.111828213463795" lon="3.481694078156606"><ele>1103.0</ele><time>2026-04-03T06:17:39Z</time></trkpt><trkpt lat="44.111736691538866" lon="3.481904543268354"><ele>1103.0</ele><time>2026-04-03T06:17:40Z</time></trkpt><trkpt lat="44.11166752019613" lon="3.4820841020942845"><ele>1103.0</ele><time>2026-04-03T06:17:41Z</time></trkpt><trkpt lat="44.1116001145998" lon="3.482260317230821"><ele>1103.2</ele><time>2026-04-03T06:17:42Z</time></trkpt><trkpt lat="44.11153027545599" lon="3.482415435551259"><ele>1103.4</ele><time>2026-04-03T06:17:43Z</time></trkpt><trkpt lat="44.11145976357856" lon="3.482553207539935"><ele>1103.6000000000001</ele><time>2026-04-03T06:17:44Z</time></trkpt><trkpt lat="44.11139078465122" lon="3.4826581972644175"><ele>1103.8</ele><time>2026-04-03T06:17:45Z</time></trkpt><trkpt lat="44.11132622552515" lon="3.482746776166928"><ele>1104.0</ele><time>2026-04-03T06:17:46Z</time></trkpt><trkpt lat="44.1112809298594" lon="3.4828480540393376"><ele>1104.0</ele><time>2026-04-03T06:17:48Z</time></trkpt><trkpt lat="44.111126016060766" lon="3.4827644291509054"><ele>1104.0</ele><time>2026-04-03T06:17:51Z</time></trkpt><trkpt lat="44.11101308330233" lon="3.482723018701877"><ele>1104.0</ele><time>2026-04-03T06:17:52Z</time></trkpt><trkpt lat="44.11088540180423" lon="3.48270108388329"><ele>1104.0</ele><time>2026-04-03T06:17:53Z</time></trkpt><trkpt lat="44.110729164497776" lon="3.4827423479099884"><ele>1104.3333333333333</ele><time>2026-04-03T06:17:54Z</time></trkpt><trkpt lat="44.110572481711905" lon="3.4828048732243264"><ele>1104.6666666666665</ele><time>2026-04-03T06:17:55Z</time></trkpt><trkpt lat="44.11040611065548" lon="3.48290709618871"><ele>1105.0</ele><time>2026-04-03T06:17:56Z</time></trkpt><trkpt lat="44.110239738711385" lon="3.483022507457886"><ele>1106.0</ele><time>2026-04-03T06:17:57Z</time></trkpt><trkpt lat="44.11007084226934" lon="3.4831360856281783"><ele>1107.0</ele><time>2026-04-03T06:17:58Z</time></trkpt><trkpt lat="44.10989977729276" lon="3.483250861236701"><ele>1108.0</ele><time>2026-04-03T06:17:59Z</time></trkpt><trkpt lat="44.109719346831014" lon="3.483364884344653"><ele>1108.0</ele><time>2026-04-03T06:18:00Z</time></trkpt><trkpt lat="44.109528985862774" lon="3.483442762938794"><ele>1108.0</ele><time>2026-04-03T06:18:01Z</time></trkpt><trkpt lat="44.109353081969466" lon="3.4834983336405725"><ele>1108.0</ele><time>2026-04-03T06:18:02Z</time></trkpt><trkpt lat="44.10919414580266" lon="3.483528046656663"><ele>1108.0</ele><time>2026-04-03T06:18:03Z</time></trkpt><trkpt lat="44.10904912255098" lon="3.483578478861915"><ele>1108.0</ele><time>2026-04-03T06:18:04Z</time></trkpt><trkpt lat="44.10892003993646" lon="3.483631320188429"><ele>1108.0</ele><time>2026-04-03T06:18:05Z</time></trkpt><trkpt lat="44.10880771335247" lon="3.483723960288325"><ele>1108.0</ele><time>2026-04-03T06:18:06Z</time></trkpt><trkpt lat="44.10870558826233" lon="3.4838758982361866"><ele>1109.6666666666665</ele><time>2026-04-03T06:18:07Z</time></trkpt><trkpt lat="44.108626562475244" lon="3.484083269913875"><ele>1111.3333333333333</ele><time>2026-04-03T06:18:08Z</time></trkpt><trkpt lat="44.10856160452591" lon="3.484328041232709"><ele>1113.0</ele><time>2026-04-03T06:18:09Z</time></trkpt><trkpt lat="44.108490379773755" lon="3.4845791036050295"><ele>1115.6666666666667</ele><time>2026-04-03T06:18:10Z</time></trkpt><trkpt lat="44.10837460626929" lon="3.484795986348417"><ele>1118.3333333333335</ele><time>2026-04-03T06:18:11Z</time></trkpt><trkpt lat="44.108257803821886" lon="3.4850081267747735"><ele>1121.0</ele><time>2026-04-03T06:18:12Z</time></trkpt><trkpt lat="44.10813871245483" lon="3.4852299730438863"><ele>1121.6666666666667</ele><time>2026-04-03T06:18:13Z</time></trkpt><trkpt lat="44.10800256655961" lon="3.4854315118768358"><ele>1122.3333333333333</ele><time>2026-04-03T06:18:14Z</time></trkpt><trkpt lat="44.10784349975083" lon="3.485594304370102"><ele>1123.0</ele><time>2026-04-03T06:18:15Z</time></trkpt><trkpt lat="44.10768084161084" lon="3.485759379062958"><ele>1123.0</ele><time>2026-04-03T06:18:16Z</time></trkpt><trkpt lat="44.10752539808367" lon="3.4859297722790688"><ele>1123.0</ele><time>2026-04-03T06:18:17Z</time></trkpt><trkpt lat="44.107348809537065" lon="3.4860633761966056"><ele>1123.0</ele><time>2026-04-03T06:18:18Z</time></trkpt><trkpt lat="44.10716545443507" lon="3.4861882715761974"><ele>1123.6666666666665</ele><time>2026-04-03T06:18:19Z</time></trkpt><trkpt lat="44.10696485220392" lon="3.4862605510551568"><ele>1124.3333333333333</ele><time>2026-04-03T06:18:20Z</time></trkpt><trkpt lat="44.106774475482574" lon="3.486322744831012"><ele>1125.0</ele><time>2026-04-03T06:18:21Z</time></trkpt><trkpt lat="44.10659191082674" lon="3.486407388391328"><ele>1126.0</ele><time>2026-04-03T06:18:22Z</time></trkpt><trkpt lat="44.106426349209954" lon="3.4864733130298773"><ele>1127.0</ele><time>2026-04-03T06:18:23Z</time></trkpt><trkpt lat="44.10625994345131" lon="3.4865729239025494"><ele>1128.0</ele><time>2026-04-03T06:18:24Z</time></trkpt><trkpt lat="44.10609476466661" lon="3.4867151206401346"><ele>1128.0</ele><time>2026-04-03T06:18:25Z</time></trkpt><trkpt lat="44.10593229146334" lon="3.4868834885036244"><ele>1128.0</ele><time>2026-04-03T06:18:26Z</time></trkpt><trkpt lat="44.10578687025169" lon="3.487037964802509"><ele>1128.0</ele><time>2026-04-03T06:18:27Z</time></trkpt><trkpt lat="44.10565301856668" lon="3.4871714801706952"><ele>1128.25</ele><time>2026-04-03T06:18:28Z</time></trkpt><trkpt lat="44.10555471684369" lon="3.487306384425528"><ele>1128.5</ele><time>2026-04-03T06:18:29Z</time></trkpt><trkpt lat="44.10548389895517" lon="3.4874756972446614"><ele>1128.75</ele><time>2026-04-03T06:18:30Z</time></trkpt><trkpt lat="44.1054414508245" lon="3.4876813446886215"><ele>1129.0</ele><time>2026-04-03T06:18:31Z</time></trkpt><trkpt lat="44.1054252179772" lon="3.487908594253804"><ele>1130.3333333333333</ele><time>2026-04-03T06:18:32Z</time></trkpt><trkpt lat="44.105431299948734" lon="3.488156769262519"><ele>1131.6666666666667</ele><time>2026-04-03T06:18:33Z</time></trkpt><trkpt lat="44.105428126260925" lon="3.4884010807085812"><ele>1133.0</ele><time>2026-04-03T06:18:34Z</time></trkpt><trkpt lat="44.10542032161985" lon="3.4886115303840595"><ele>1133.4</ele><time>2026-04-03T06:18:35Z</time></trkpt><trkpt lat="44.10541704582514" lon="3.4887857540039673"><ele>1133.8</ele><time>2026-04-03T06:18:36Z</time></trkpt><trkpt lat="44.10541347268301" lon="3.4889434905106533"><ele>1134.2</ele><time>2026-04-03T06:18:37Z</time></trkpt><trkpt lat="44.105406252434754" lon="3.489097978119817"><ele>1134.6</ele><time>2026-04-03T06:18:38Z</time></trkpt><trkpt lat="44.10540700140625" lon="3.4892349499201125"><ele>1135.0</ele><time>2026-04-03T06:18:39Z</time></trkpt><trkpt lat="44.10541235970524" lon="3.489358189125237"><ele>1135.0</ele><time>2026-04-03T06:18:40Z</time></trkpt><trkpt lat="44.10541581723754" lon="3.489507414368391"><ele>1135.0</ele><time>2026-04-03T06:18:42Z</time></trkpt><trkpt lat="44.10543725488972" lon="3.4896033108373063"><ele>1135.0</ele><time>2026-04-03T06:18:45Z</time></trkpt><trkpt lat="44.10546232941489" lon="3.4896848564368126"><ele>1135.0</ele><time>2026-04-03T06:18:48Z</time></trkpt><trkpt lat="44.105480816508944" lon="3.4895488199681486"><ele>1135.0</ele><time>2026-04-03T06:18:52Z</time></trkpt><trkpt lat="44.105452322164105" lon="3.4894153677493374"><ele>1135.0</ele><time>2026-04-03T06:18:53Z</time></trkpt><trkpt lat="44.1054377390145" lon="3.4893162612848707"><ele>1135.0</ele><time>2026-04-03T06:18:54Z</time></trkpt><trkpt lat="44.10542113328244" lon="3.489226458015735"><ele>1135.0</ele><time>2026-04-03T06:18:55Z</time></trkpt><trkpt lat="44.105399430145155" lon="3.489076920021343"><ele>1135.0</ele><time>2026-04-03T06:18:57Z</time></trkpt><trkpt lat="44.10540815812216" lon="3.488953417749611"><ele>1135.0</ele><time>2026-04-03T06:18:59Z</time></trkpt><trkpt lat="44.10541202400155" lon="3.488838506571675"><ele>1135.0</ele><time>2026-04-03T06:19:01Z</time></trkpt><trkpt lat="44.10541919159377" lon="3.488713630994329"><ele>1135.0</ele><time>2026-04-03T06:19:03Z</time></trkpt><trkpt lat="44.10542790559876" lon="3.488598166012753"><ele>1134.6</ele><time>2026-04-03T06:19:05Z</time></trkpt><trkpt lat="44.10542892174416" lon="3.4884389000196445"><ele>1134.2</ele><time>2026-04-03T06:19:07Z</time></trkpt><trkpt lat="44.1054373459376" lon="3.4882885652121725"><ele>1133.8</ele><time>2026-04-03T06:19:09Z</time></trkpt><trkpt lat="44.10545067820181" lon="3.4881444668600228"><ele>1133.4</ele><time>2026-04-03T06:19:11Z</time></trkpt><trkpt lat="44.10548915906616" lon="3.488030493816246"><ele>1133.0</ele><time>2026-04-03T06:19:13Z</time></trkpt><trkpt lat="44.105472484499394" lon="3.4879316632482382"><ele>1133.0</ele><time>2026-04-03T06:19:16Z</time></trkpt><trkpt lat="44.10543325357449" lon="3.488021730481699"><ele>1133.0</ele><time>2026-04-03T06:19:36Z</time></trkpt><trkpt lat="44.10540242471542" lon="3.488119329126444"><ele>1133.0</ele><time>2026-04-03T06:19:42Z</time></trkpt><trkpt lat="44.10538847508921" lon="3.488211917405057"><ele>1133.0</ele><time>2026-04-03T06:19:48Z</time></trkpt><trkpt lat="44.105386083858996" lon="3.488302672349064"><ele>1133.0</ele><time>2026-04-03T06:19:53Z</time></trkpt><trkpt lat="44.1053779177998" lon="3.4883937521630335"><ele>1133.0</ele><time>2026-04-03T06:19:58Z</time></trkpt><trkpt lat="44.10537067347195" lon="3.4884828222987196"><ele>1133.0</ele><time>2026-04-03T06:20:04Z</time></trkpt><trkpt lat="44.10536354473548" lon="3.4885715614071304"><ele>1133.0</ele><time>2026-04-03T06:20:10Z</time></trkpt><trkpt lat="44.105328982724835" lon="3.488648574541756"><ele>1133.0</ele><time>2026-04-03T06:20:20Z</time></trkpt><trkpt lat="44.10533786720766" lon="3.48854269820163"><ele>1133.0</ele><time>2026-04-03T06:21:13Z</time></trkpt><trkpt lat="44.10536533591252" lon="3.488463045284336"><ele>1133.0</ele><time>2026-04-03T06:21:17Z</time></trkpt><trkpt lat="44.105367256186284" lon="3.488364543622068"><ele>1133.0</ele><time>2026-04-03T06:21:22Z</time></trkpt><trkpt lat="44.1053906971121" lon="3.4882627526809022"><ele>1133.0</ele><time>2026-04-03T06:21:27Z</time></trkpt><trkpt lat="44.10540132903718" lon="3.4881696487668195"><ele>1133.0</ele><time>2026-04-03T06:21:32Z</time></trkpt><trkpt lat="44.10541120618354" lon="3.4880610360239848"><ele>1133.0</ele><time>2026-04-03T06:21:37Z</time></trkpt><trkpt lat="44.10544322684588" lon="3.487978258678642"><ele>1133.0</ele><time>2026-04-03T06:21:41Z</time></trkpt><trkpt lat="44.105444027756484" lon="3.4881218403782173"><ele>1133.0</ele><time>2026-04-03T06:22:15Z</time></trkpt><trkpt lat="44.10544397988035" lon="3.4882355766993416"><ele>1133.0</ele><time>2026-04-03T06:22:16Z</time></trkpt><trkpt lat="44.10544111641075" lon="3.4883925347562488"><ele>1133.0</ele><time>2026-04-03T06:22:17Z</time></trkpt><trkpt lat="44.1054386037502" lon="3.4885542420186084"><ele>1133.6666666666667</ele><time>2026-04-03T06:22:18Z</time></trkpt><trkpt lat="44.105435006795524" lon="3.4887969036207926"><ele>1134.3333333333333</ele><time>2026-04-03T06:22:19Z</time></trkpt><trkpt lat="44.10543192958076" lon="3.4890387781217003"><ele>1135.0</ele><time>2026-04-03T06:22:20Z</time></trkpt><trkpt lat="44.1054324125721" lon="3.48930693421744"><ele>1135.6666666666665</ele><time>2026-04-03T06:22:21Z</time></trkpt><trkpt lat="44.105390499073174" lon="3.489606705020439"><ele>1136.3333333333333</ele><time>2026-04-03T06:22:22Z</time></trkpt><trkpt lat="44.105476587501826" lon="3.489894993775767"><ele>1137.0</ele><time>2026-04-03T06:22:23Z</time></trkpt><trkpt lat="44.10552172749695" lon="3.4901645885141797"><ele>1137.0</ele><time>2026-04-03T06:22:24Z</time></trkpt><trkpt lat="44.10554517128908" lon="3.4904073372620363"><ele>1137.0</ele><time>2026-04-03T06:22:25Z</time></trkpt><trkpt lat="44.10555295786699" lon="3.4906339509822546"><ele>1137.0</ele><time>2026-04-03T06:22:26Z</time></trkpt><trkpt lat="44.10551577058646" lon="3.4908284971609027"><ele>1137.0</ele><time>2026-04-03T06:22:27Z</time></trkpt><trkpt lat="44.105486090728405" lon="3.491027430350464"><ele>1137.0</ele><time>2026-04-03T06:22:28Z</time></trkpt><trkpt lat="44.1054836344951" lon="3.4912375853280873"><ele>1137.0</ele><time>2026-04-03T06:22:29Z</time></trkpt><trkpt lat="44.105508591157644" lon="3.49146735399303"><ele>1137.0</ele><time>2026-04-03T06:22:30Z</time></trkpt><trkpt lat="44.10558010923008" lon="3.4916923442388055"><ele>1137.0</ele><time>2026-04-03T06:22:31Z</time></trkpt><trkpt lat="44.10566940196668" lon="3.49189714687711"><ele>1137.0</ele><time>2026-04-03T06:22:32Z</time></trkpt><trkpt lat="44.10575357598555" lon="3.4920899089696014"><ele>1138.6666666666667</ele><time>2026-04-03T06:22:33Z</time></trkpt><trkpt lat="44.10581649311766" lon="3.4922844354041036"><ele>1140.3333333333335</ele><time>2026-04-03T06:22:34Z</time></trkpt><trkpt lat="44.10582952142229" lon="3.4925082376560384"><ele>1142.0</ele><time>2026-04-03T06:22:35Z</time></trkpt><trkpt lat="44.10584380785344" lon="3.492732702944993"><ele>1141.6666666666667</ele><time>2026-04-03T06:22:36Z</time></trkpt><trkpt lat="44.10586404146816" lon="3.4929844036489284"><ele>1141.3333333333333</ele><time>2026-04-03T06:22:37Z</time></trkpt><trkpt lat="44.105886296977786" lon="3.4932318941516125"><ele>1141.0</ele><time>2026-04-03T06:22:38Z</time></trkpt><trkpt lat="44.10591163688872" lon="3.4934955717001013"><ele>1141.6666666666665</ele><time>2026-04-03T06:22:39Z</time></trkpt><trkpt lat="44.105937414324195" lon="3.4937606904944727"><ele>1142.3333333333333</ele><time>2026-04-03T06:22:40Z</time></trkpt><trkpt lat="44.1059631514639" lon="3.4940320223730974"><ele>1143.0</ele><time>2026-04-03T06:22:41Z</time></trkpt><trkpt lat="44.10597158148267" lon="3.494302060683139"><ele>1143.0</ele><time>2026-04-03T06:22:42Z</time></trkpt><trkpt lat="44.1059502131329" lon="3.4945602425716253"><ele>1143.0</ele><time>2026-04-03T06:22:43Z</time></trkpt><trkpt lat="44.10590620968927" lon="3.4948048723064415"><ele>1143.0</ele><time>2026-04-03T06:22:44Z</time></trkpt><trkpt lat="44.105854016744026" lon="3.495065158908404"><ele>1144.3333333333333</ele><time>2026-04-03T06:22:45Z</time></trkpt><trkpt lat="44.10580249533102" lon="3.495329555953446"><ele>1145.6666666666665</ele><time>2026-04-03T06:22:46Z</time></trkpt><trkpt lat="44.10574990442014" lon="3.495599441420355"><ele>1147.0</ele><time>2026-04-03T06:22:47Z</time></trkpt><trkpt lat="44.105696797754256" lon="3.4958677466336745"><ele>1145.0</ele><time>2026-04-03T06:22:48Z</time></trkpt><trkpt lat="44.105641076814294" lon="3.4961485571506734"><ele>1143.0</ele><time>2026-04-03T06:22:49Z</time></trkpt><trkpt lat="44.105587625638925" lon="3.496417928975099"><ele>1141.0</ele><time>2026-04-03T06:22:50Z</time></trkpt><trkpt lat="44.105531627170365" lon="3.496645328329082"><ele>1141.0</ele><time>2026-04-03T06:22:51Z</time></trkpt><trkpt lat="44.10546734680101" lon="3.496846907806744"><ele>1141.0</ele><time>2026-04-03T06:22:52Z</time></trkpt><trkpt lat="44.105359450400684" lon="3.4970223932840754"><ele>1141.0</ele><time>2026-04-03T06:22:53Z</time></trkpt><trkpt lat="44.1052320891838" lon="3.497158296884485"><ele>1142.0</ele><time>2026-04-03T06:22:54Z</time></trkpt><trkpt lat="44.105072516020485" lon="3.4973140901238624"><ele>1143.0</ele><time>2026-04-03T06:22:55Z</time></trkpt><trkpt lat="44.10490265776954" lon="3.49747738344361"><ele>1144.0</ele><time>2026-04-03T06:22:56Z</time></trkpt><trkpt lat="44.10474044435178" lon="3.497663880201253"><ele>1144.0</ele><time>2026-04-03T06:22:57Z</time></trkpt><trkpt lat="44.104586425284566" lon="3.4978506593086762"><ele>1144.0</ele><time>2026-04-03T06:22:58Z</time></trkpt><trkpt lat="44.10446419683877" lon="3.498036654070852"><ele>1144.0</ele><time>2026-04-03T06:22:59Z</time></trkpt><trkpt lat="44.104371218724744" lon="3.4982017552175106"><ele>1146.0</ele><time>2026-04-03T06:23:00Z</time></trkpt><trkpt lat="44.10429830329192" lon="3.4983784752245457"><ele>1148.0</ele><time>2026-04-03T06:23:01Z</time></trkpt><trkpt lat="44.10426808485997" lon="3.4985839830426415"><ele>1150.0</ele><time>2026-04-03T06:23:02Z</time></trkpt><trkpt lat="44.10427527210201" lon="3.498791181865577"><ele>1152.0</ele><time>2026-04-03T06:23:03Z</time></trkpt><trkpt lat="44.104285177230665" lon="3.49899024741503"><ele>1152.75</ele><time>2026-04-03T06:23:04Z</time></trkpt><trkpt lat="44.10423661381261" lon="3.4991653776794376"><ele>1153.5</ele><time>2026-04-03T06:23:05Z</time></trkpt><trkpt lat="44.104143221531665" lon="3.499292062001563"><ele>1154.25</ele><time>2026-04-03T06:23:06Z</time></trkpt><trkpt lat="44.104017663607685" lon="3.499397013752508"><ele>1155.0</ele><time>2026-04-03T06:23:07Z</time></trkpt><trkpt lat="44.103870041425566" lon="3.499534262083942"><ele>1155.6666666666667</ele><time>2026-04-03T06:23:08Z</time></trkpt><trkpt lat="44.10372238822862" lon="3.499691714027667"><ele>1156.3333333333335</ele><time>2026-04-03T06:23:09Z</time></trkpt><trkpt lat="44.10360323766648" lon="3.499910096154282"><ele>1157.0</ele><time>2026-04-03T06:23:10Z</time></trkpt><trkpt lat="44.10351765287099" lon="3.500101627951354"><ele>1157.0</ele><time>2026-04-03T06:23:11Z</time></trkpt><trkpt lat="44.10345908595845" lon="3.5003191816140786"><ele>1157.0</ele><time>2026-04-03T06:23:12Z</time></trkpt><trkpt lat="44.103404339532716" lon="3.5005420317668596"><ele>1157.0</ele><time>2026-04-03T06:23:13Z</time></trkpt><trkpt lat="44.10335644103849" lon="3.500764990138554"><ele>1159.0</ele><time>2026-04-03T06:23:14Z</time></trkpt><trkpt lat="44.10330527403682" lon="3.5009908250534836"><ele>1161.0</ele><time>2026-04-03T06:23:15Z</time></trkpt><trkpt lat="44.103344079042635" lon="3.501231872027585"><ele>1163.0</ele><time>2026-04-03T06:23:16Z</time></trkpt><trkpt lat="44.10339190556552" lon="3.5014759648636735"><ele>1163.3333333333335</ele><time>2026-04-03T06:23:17Z</time></trkpt><trkpt lat="44.10341633288449" lon="3.501723012230581"><ele>1163.6666666666667</ele><time>2026-04-03T06:23:18Z</time></trkpt><trkpt lat="44.10348306413447" lon="3.5019956561668013"><ele>1164.0</ele><time>2026-04-03T06:23:19Z</time></trkpt><trkpt lat="44.10345574915039" lon="3.50226602702903"><ele>1163.6666666666667</ele><time>2026-04-03T06:23:20Z</time></trkpt><trkpt lat="44.10339905936478" lon="3.502516191169991"><ele>1163.3333333333335</ele><time>2026-04-03T06:23:21Z</time></trkpt><trkpt lat="44.10333499886965" lon="3.5027895028398213"><ele>1163.0</ele><time>2026-04-03T06:23:22Z</time></trkpt><trkpt lat="44.1032615710204" lon="3.5030846058422203"><ele>1162.0</ele><time>2026-04-03T06:23:23Z</time></trkpt><trkpt lat="44.10319466239402" lon="3.503378680875419"><ele>1161.0</ele><time>2026-04-03T06:23:24Z</time></trkpt><trkpt lat="44.10315753229489" lon="3.503658033954364"><ele>1160.0</ele><time>2026-04-03T06:23:25Z</time></trkpt><trkpt lat="44.10313264314219" lon="3.503928146158169"><ele>1162.0</ele><time>2026-04-03T06:23:26Z</time></trkpt><trkpt lat="44.1031363795796" lon="3.5041888673068917"><ele>1164.0</ele><time>2026-04-03T06:23:27Z</time></trkpt><trkpt lat="44.10316253503095" lon="3.5044415108201297"><ele>1166.0</ele><time>2026-04-03T06:23:28Z</time></trkpt><trkpt lat="44.10320410404244" lon="3.504700147138658"><ele>1167.6666666666667</ele><time>2026-04-03T06:23:29Z</time></trkpt><trkpt lat="44.103268591868535" lon="3.5049621494424"><ele>1169.3333333333333</ele><time>2026-04-03T06:23:30Z</time></trkpt><trkpt lat="44.10335947714629" lon="3.505229156620572"><ele>1171.0</ele><time>2026-04-03T06:23:31Z</time></trkpt><trkpt lat="44.103474297976334" lon="3.5054975120116825"><ele>1171.0</ele><time>2026-04-03T06:23:32Z</time></trkpt><trkpt lat="44.10361741221743" lon="3.5057543773697875"><ele>1171.0</ele><time>2026-04-03T06:23:33Z</time></trkpt><trkpt lat="44.103775742362" lon="3.5060012770219364"><ele>1171.0</ele><time>2026-04-03T06:23:34Z</time></trkpt><trkpt lat="44.10391670373376" lon="3.5062311098396575"><ele>1171.0</ele><time>2026-04-03T06:23:35Z</time></trkpt><trkpt lat="44.10404112817488" lon="3.5064483307759744"><ele>1171.0</ele><time>2026-04-03T06:23:36Z</time></trkpt><trkpt lat="44.10415999584991" lon="3.5066465370050546"><ele>1173.0</ele><time>2026-04-03T06:23:37Z</time></trkpt><trkpt lat="44.104267925818036" lon="3.506834765916907"><ele>1175.0</ele><time>2026-04-03T06:23:38Z</time></trkpt><trkpt lat="44.10436920337963" lon="3.5070077566335"><ele>1177.0</ele><time>2026-04-03T06:23:39Z</time></trkpt><trkpt lat="44.10446578432808" lon="3.507170899845085"><ele>1177.0</ele><time>2026-04-03T06:23:40Z</time></trkpt><trkpt lat="44.10456350919269" lon="3.5073159784422923"><ele>1177.0</ele><time>2026-04-03T06:23:41Z</time></trkpt><trkpt lat="44.1046642185692" lon="3.5074413625519596"><ele>1177.0</ele><time>2026-04-03T06:23:42Z</time></trkpt><trkpt lat="44.1047784122921" lon="3.5075709369178973"><ele>1177.0</ele><time>2026-04-03T06:23:43Z</time></trkpt><trkpt lat="44.104893338000885" lon="3.5077088622237493"><ele>1179.25</ele><time>2026-04-03T06:23:44Z</time></trkpt><trkpt lat="44.10498196994683" lon="3.507876449046291"><ele>1181.5</ele><time>2026-04-03T06:23:45Z</time></trkpt><trkpt lat="44.1050439705934" lon="3.508049917253862"><ele>1183.75</ele><time>2026-04-03T06:23:46Z</time></trkpt><trkpt lat="44.10507767903211" lon="3.508236704840131"><ele>1186.0</ele><time>2026-04-03T06:23:47Z</time></trkpt><trkpt lat="44.10506916003693" lon="3.5084246801389503"><ele>1186.0</ele><time>2026-04-03T06:23:48Z</time></trkpt><trkpt lat="44.10505097563085" lon="3.50865683860047"><ele>1186.0</ele><time>2026-04-03T06:23:49Z</time></trkpt><trkpt lat="44.10502213649271" lon="3.508904040506793"><ele>1186.0</ele><time>2026-04-03T06:23:50Z</time></trkpt><trkpt lat="44.10499685609035" lon="3.509156319747653"><ele>1187.0</ele><time>2026-04-03T06:23:51Z</time></trkpt><trkpt lat="44.104973421028355" lon="3.509425074022676"><ele>1188.0</ele><time>2026-04-03T06:23:52Z</time></trkpt><trkpt lat="44.10498004495082" lon="3.509677345360697"><ele>1189.0</ele><time>2026-04-03T06:23:53Z</time></trkpt><trkpt lat="44.10498687305977" lon="3.509942652490562"><ele>1190.3333333333333</ele><time>2026-04-03T06:23:54Z</time></trkpt><trkpt lat="44.1050352473314" lon="3.510219183440618"><ele>1191.6666666666667</ele><time>2026-04-03T06:23:55Z</time></trkpt><trkpt lat="44.10509169494571" lon="3.510498472548995"><ele>1193.0</ele><time>2026-04-03T06:23:56Z</time></trkpt><trkpt lat="44.10513554195017" lon="3.5107839325148302"><ele>1193.3333333333335</ele><time>2026-04-03T06:23:57Z</time></trkpt><trkpt lat="44.10516087943137" lon="3.5110875418911314"><ele>1193.6666666666667</ele><time>2026-04-03T06:23:58Z</time></trkpt><trkpt lat="44.10516356521994" lon="3.511402813719116"><ele>1194.0</ele><time>2026-04-03T06:23:59Z</time></trkpt><trkpt lat="44.1051539651797" lon="3.511704113114921"><ele>1194.3333333333333</ele><time>2026-04-03T06:24:00Z</time></trkpt><trkpt lat="44.10516893494501" lon="3.511993456674545"><ele>1194.6666666666665</ele><time>2026-04-03T06:24:01Z</time></trkpt><trkpt lat="44.10518465002576" lon="3.5122896964625263"><ele>1195.0</ele><time>2026-04-03T06:24:02Z</time></trkpt><trkpt lat="44.105161997778914" lon="3.5125782199941447"><ele>1195.0</ele><time>2026-04-03T06:24:03Z</time></trkpt><trkpt lat="44.105112931233364" lon="3.5128809494070468"><ele>1195.0</ele><time>2026-04-03T06:24:04Z</time></trkpt><trkpt lat="44.10505387344541" lon="3.5131830234196135"><ele>1195.0</ele><time>2026-04-03T06:24:05Z</time></trkpt><trkpt lat="44.10496201602251" lon="3.5134636376615114"><ele>1199.5</ele><time>2026-04-03T06:24:06Z</time></trkpt><trkpt lat="44.104887861453236" lon="3.513767699919438"><ele>1204.0</ele><time>2026-04-03T06:24:07Z</time></trkpt><trkpt lat="44.10478009412063" lon="3.514069769839862"><ele>1204.0</ele><time>2026-04-03T06:24:08Z</time></trkpt><trkpt lat="44.10467860169665" lon="3.5143921494831085"><ele>1204.0</ele><time>2026-04-03T06:24:09Z</time></trkpt><trkpt lat="44.10458555611266" lon="3.51472184916057"><ele>1205.5</ele><time>2026-04-03T06:24:10Z</time></trkpt><trkpt lat="44.10450069865882" lon="3.5150276142524866"><ele>1207.0</ele><time>2026-04-03T06:24:11Z</time></trkpt><trkpt lat="44.10440734379184" lon="3.5153193523036097"><ele>1207.5</ele><time>2026-04-03T06:24:12Z</time></trkpt><trkpt lat="44.1043057622373" lon="3.5156083792345845"><ele>1208.0</ele><time>2026-04-03T06:24:13Z</time></trkpt><trkpt lat="44.10417143662811" lon="3.5158630646594"><ele>1212.5</ele><time>2026-04-03T06:24:14Z</time></trkpt><trkpt lat="44.10401973977275" lon="3.51612897551134"><ele>1217.0</ele><time>2026-04-03T06:24:15Z</time></trkpt><trkpt lat="44.10388901751859" lon="3.516420055588391"><ele>1218.0</ele><time>2026-04-03T06:24:16Z</time></trkpt><trkpt lat="44.10374383790259" lon="3.5166931630058924"><ele>1219.0</ele><time>2026-04-03T06:24:17Z</time></trkpt><trkpt lat="44.10357800386079" lon="3.5169331485722837"><ele>1219.6666666666665</ele><time>2026-04-03T06:24:18Z</time></trkpt><trkpt lat="44.1034319695774" lon="3.5171602394636943"><ele>1220.3333333333333</ele><time>2026-04-03T06:24:19Z</time></trkpt><trkpt lat="44.10329504752712" lon="3.5173607112663174"><ele>1221.0</ele><time>2026-04-03T06:24:20Z</time></trkpt><trkpt lat="44.10318562628747" lon="3.5175932378069863"><ele>1225.6666666666667</ele><time>2026-04-03T06:24:21Z</time></trkpt><trkpt lat="44.103103307694454" lon="3.5178783971452985"><ele>1230.3333333333335</ele><time>2026-04-03T06:24:22Z</time></trkpt><trkpt lat="44.103031735621684" lon="3.5181747752320356"><ele>1235.0</ele><time>2026-04-03T06:24:23Z</time></trkpt><trkpt lat="44.1029637376758" lon="3.51849595417051"><ele>1234.5</ele><time>2026-04-03T06:24:24Z</time></trkpt><trkpt lat="44.10290781457904" lon="3.518814287260791"><ele>1234.0</ele><time>2026-04-03T06:24:25Z</time></trkpt><trkpt lat="44.102840792188545" lon="3.5191246216197842"><ele>1234.0</ele><time>2026-04-03T06:24:26Z</time></trkpt><trkpt lat="44.10276413200002" lon="3.519418743756138"><ele>1234.0</ele><time>2026-04-03T06:24:27Z</time></trkpt><trkpt lat="44.102691238815055" lon="3.5196833226552053"><ele>1234.0</ele><time>2026-04-03T06:24:28Z</time></trkpt><trkpt lat="44.10262818392298" lon="3.5199328282850493"><ele>1234.0</ele><time>2026-04-03T06:24:29Z</time></trkpt><trkpt lat="44.10258718010018" lon="3.520175652363248"><ele>1234.0</ele><time>2026-04-03T06:24:30Z</time></trkpt><trkpt lat="44.102590581055985" lon="3.5204209469080596"><ele>1234.0</ele><time>2026-04-03T06:24:31Z</time></trkpt><trkpt lat="44.10263973631134" lon="3.520684076232615"><ele>1235.0</ele><time>2026-04-03T06:24:32Z</time></trkpt><trkpt lat="44.10270698748874" lon="3.5209559934732257"><ele>1236.0</ele><time>2026-04-03T06:24:33Z</time></trkpt><trkpt lat="44.10276452679677" lon="3.5212175128550993"><ele>1237.0</ele><time>2026-04-03T06:24:34Z</time></trkpt><trkpt lat="44.102789151340275" lon="3.521480965293072"><ele>1238.6666666666665</ele><time>2026-04-03T06:24:35Z</time></trkpt><trkpt lat="44.102772529684444" lon="3.521740057838768"><ele>1240.3333333333333</ele><time>2026-04-03T06:24:36Z</time></trkpt><trkpt lat="44.1026976296118" lon="3.521955171709023"><ele>1242.0</ele><time>2026-04-03T06:24:37Z</time></trkpt><trkpt lat="44.10261462958889" lon="3.522152444731216"><ele>1243.0</ele><time>2026-04-03T06:24:38Z</time></trkpt><trkpt lat="44.10250008019336" lon="3.522356814748872"><ele>1244.0</ele><time>2026-04-03T06:24:39Z</time></trkpt><trkpt lat="44.10238268494779" lon="3.522586189594164"><ele>1245.0</ele><time>2026-04-03T06:24:40Z</time></trkpt><trkpt lat="44.1022499986539" lon="3.5228183204197636"><ele>1247.3333333333333</ele><time>2026-04-03T06:24:41Z</time></trkpt><trkpt lat="44.10211475056162" lon="3.523068188768794"><ele>1249.6666666666665</ele><time>2026-04-03T06:24:42Z</time></trkpt><trkpt lat="44.101984346043146" lon="3.5233208345539544"><ele>1252.0</ele><time>2026-04-03T06:24:43Z</time></trkpt><trkpt lat="44.10185908488641" lon="3.523574053955682"><ele>1250.6666666666665</ele><time>2026-04-03T06:24:44Z</time></trkpt><trkpt lat="44.10174506582178" lon="3.523818904387648"><ele>1249.3333333333333</ele><time>2026-04-03T06:24:45Z</time></trkpt><trkpt lat="44.10162917036413" lon="3.5240546775142243"><ele>1248.0</ele><time>2026-04-03T06:24:46Z</time></trkpt><trkpt lat="44.101497672038285" lon="3.524263889756051"><ele>1252.3333333333333</ele><time>2026-04-03T06:24:47Z</time></trkpt><trkpt lat="44.10136736018278" lon="3.5244382361507425"><ele>1256.6666666666665</ele><time>2026-04-03T06:24:48Z</time></trkpt><trkpt lat="44.101247729779544" lon="3.5245629708124526"><ele>1261.0</ele><time>2026-04-03T06:24:49Z</time></trkpt><trkpt lat="44.10115820294311" lon="3.524673118678854"><ele>1261.0</ele><time>2026-04-03T06:24:50Z</time></trkpt><trkpt lat="44.10111569118312" lon="3.5247975248551073"><ele>1261.0</ele><time>2026-04-03T06:24:51Z</time></trkpt><trkpt lat="44.101112254414936" lon="3.524955086250493"><ele>1261.0</ele><time>2026-04-03T06:24:52Z</time></trkpt><trkpt lat="44.101144636360885" lon="3.5251127960206046"><ele>1261.0</ele><time>2026-04-03T06:24:53Z</time></trkpt><trkpt lat="44.101200514791245" lon="3.525277604925222"><ele>1262.6666666666665</ele><time>2026-04-03T06:24:54Z</time></trkpt><trkpt lat="44.101242153310686" lon="3.525468591010112"><ele>1264.3333333333333</ele><time>2026-04-03T06:24:55Z</time></trkpt><trkpt lat="44.10123275234518" lon="3.5257061151264497"><ele>1266.0</ele><time>2026-04-03T06:24:56Z</time></trkpt><trkpt lat="44.101259533728786" lon="3.5259405475790846"><ele>1266.0</ele><time>2026-04-03T06:24:57Z</time></trkpt><trkpt lat="44.10127951691513" lon="3.52615042352737"><ele>1266.0</ele><time>2026-04-03T06:24:58Z</time></trkpt><trkpt lat="44.10133672995211" lon="3.5263515510715453"><ele>1266.0</ele><time>2026-04-03T06:24:59Z</time></trkpt><trkpt lat="44.101398782767596" lon="3.526532362233458"><ele>1264.5</ele><time>2026-04-03T06:25:00Z</time></trkpt><trkpt lat="44.10148525796743" lon="3.5266756877090435"><ele>1263.0</ele><time>2026-04-03T06:25:01Z</time></trkpt><trkpt lat="44.101607536600326" lon="3.5267867081019695"><ele>1261.5</ele><time>2026-04-03T06:25:02Z</time></trkpt><trkpt lat="44.10173886008052" lon="3.52691690814733"><ele>1260.0</ele><time>2026-04-03T06:25:03Z</time></trkpt><trkpt lat="44.10186833704538" lon="3.5270506127930794"><ele>1260.0</ele><time>2026-04-03T06:25:04Z</time></trkpt><trkpt lat="44.10200329251726" lon="3.527175522341815"><ele>1260.0</ele><time>2026-04-03T06:25:05Z</time></trkpt><trkpt lat="44.10227299819152" lon="3.527042706575506"><ele>1260.0</ele><time>2026-04-03T06:25:06Z</time></trkpt><trkpt lat="44.10244117094854" lon="3.527117690429408"><ele>1263.6666666666667</ele><time>2026-04-03T06:25:07Z</time></trkpt><trkpt lat="44.10260345257022" lon="3.527233677253229"><ele>1267.3333333333335</ele><time>2026-04-03T06:25:08Z</time></trkpt><trkpt lat="44.10275630763958" lon="3.527373830071382"><ele>1271.0</ele><time>2026-04-03T06:25:09Z</time></trkpt><trkpt lat="44.102912774076685" lon="3.5274766171979226"><ele>1271.0</ele><time>2026-04-03T06:25:10Z</time></trkpt><trkpt lat="44.103057238879494" lon="3.5275720944887685"><ele>1271.0</ele><time>2026-04-03T06:25:11Z</time></trkpt><trkpt lat="44.10316378122503" lon="3.527693596183364"><ele>1271.0</ele><time>2026-04-03T06:25:12Z</time></trkpt><trkpt lat="44.1032147798925" lon="3.5278417094767636"><ele>1271.0</ele><time>2026-04-03T06:25:13Z</time></trkpt><trkpt lat="44.10322714956533" lon="3.527996929341384"><ele>1273.75</ele><time>2026-04-03T06:25:14Z</time></trkpt><trkpt lat="44.103199728299195" lon="3.528149088633266"><ele>1276.5</ele><time>2026-04-03T06:25:15Z</time></trkpt><trkpt lat="44.103165632030034" lon="3.528339426928249"><ele>1279.25</ele><time>2026-04-03T06:25:16Z</time></trkpt><trkpt lat="44.10313456645366" lon="3.5285559869031102"><ele>1282.0</ele><time>2026-04-03T06:25:17Z</time></trkpt><trkpt lat="44.10313211653281" lon="3.5287734579058085"><ele>1283.6666666666665</ele><time>2026-04-03T06:25:18Z</time></trkpt><trkpt lat="44.10315038706579" lon="3.528990477874657"><ele>1285.3333333333333</ele><time>2026-04-03T06:25:19Z</time></trkpt><trkpt lat="44.1031633541799" lon="3.529207540550047"><ele>1287.0</ele><time>2026-04-03T06:25:20Z</time></trkpt><trkpt lat="44.10313865110653" lon="3.529420025401381"><ele>1287.0</ele><time>2026-04-03T06:25:21Z</time></trkpt><trkpt lat="44.103060098913254" lon="3.5296198029512227"><ele>1287.0</ele><time>2026-04-03T06:25:22Z</time></trkpt><trkpt lat="44.10296244856295" lon="3.529819612319005"><ele>1287.0</ele><time>2026-04-03T06:25:23Z</time></trkpt><trkpt lat="44.10285221958617" lon="3.530013967850158"><ele>1287.0</ele><time>2026-04-03T06:25:24Z</time></trkpt><trkpt lat="44.10273250354522" lon="3.5301991722703403"><ele>1287.0</ele><time>2026-04-03T06:25:25Z</time></trkpt><trkpt lat="44.10262936226389" lon="3.530406096856987"><ele>1287.0</ele><time>2026-04-03T06:25:26Z</time></trkpt><trkpt lat="44.10257187178637" lon="3.5306122797499317"><ele>1286.0</ele><time>2026-04-03T06:25:27Z</time></trkpt><trkpt lat="44.10253292115266" lon="3.5308393707796446"><ele>1285.0</ele><time>2026-04-03T06:25:28Z</time></trkpt><trkpt lat="44.102540433088016" lon="3.5310709019161624"><ele>1284.0</ele><time>2026-04-03T06:25:29Z</time></trkpt><trkpt lat="44.102571859907314" lon="3.531295858955141"><ele>1284.0</ele><time>2026-04-03T06:25:30Z</time></trkpt><trkpt lat="44.10258482932987" lon="3.5315207649155402"><ele>1284.0</ele><time>2026-04-03T06:25:31Z</time></trkpt><trkpt lat="44.10258423396654" lon="3.531742770902735"><ele>1284.0</ele><time>2026-04-03T06:25:32Z</time></trkpt><trkpt lat="44.102608773744386" lon="3.531900318685379"><ele>1284.0</ele><time>2026-04-03T06:25:33Z</time></trkpt><trkpt lat="44.10267595348536" lon="3.5320216625461955"><ele>1285.0</ele><time>2026-04-03T06:25:34Z</time></trkpt><trkpt lat="44.10276957712119" lon="3.532098983369126"><ele>1286.0</ele><time>2026-04-03T06:25:35Z</time></trkpt><trkpt lat="44.10286145525455" lon="3.5321584197179483"><ele>1287.0</ele><time>2026-04-03T06:25:36Z</time></trkpt><trkpt lat="44.10292394425995" lon="3.5322443351708293"><ele>1288.0</ele><time>2026-04-03T06:25:37Z</time></trkpt><trkpt lat="44.10295102342815" lon="3.532356230265276"><ele>1289.0</ele><time>2026-04-03T06:25:38Z</time></trkpt><trkpt lat="44.10294528828568" lon="3.532483674141073"><ele>1289.0</ele><time>2026-04-03T06:25:39Z</time></trkpt><trkpt lat="44.10291945748448" lon="3.5326360696799046"><ele>1289.0</ele><time>2026-04-03T06:25:40Z</time></trkpt><trkpt lat="44.102858662052896" lon="3.532786302516334"><ele>1289.0</ele><time>2026-04-03T06:25:41Z</time></trkpt><trkpt lat="44.102829504297546" lon="3.532945363232948"><ele>1289.0</ele><time>2026-04-03T06:25:42Z</time></trkpt><trkpt lat="44.1027881566535" lon="3.5331164026961197"><ele>1290.0</ele><time>2026-04-03T06:25:43Z</time></trkpt><trkpt lat="44.10275836885717" lon="3.5332910858988815"><ele>1291.0</ele><time>2026-04-03T06:25:44Z</time></trkpt><trkpt lat="44.102727132156566" lon="3.533491082127652"><ele>1292.0</ele><time>2026-04-03T06:25:45Z</time></trkpt><trkpt lat="44.10270931714284" lon="3.533738194325822"><ele>1292.0</ele><time>2026-04-03T06:25:46Z</time></trkpt><trkpt lat="44.10270426016576" lon="3.5339913539222816"><ele>1292.0</ele><time>2026-04-03T06:25:47Z</time></trkpt><trkpt lat="44.10272711843347" lon="3.534246637716968"><ele>1292.0</ele><time>2026-04-03T06:25:48Z</time></trkpt><trkpt lat="44.102743982198746" lon="3.5344929792712283"><ele>1292.0</ele><time>2026-04-03T06:25:49Z</time></trkpt><trkpt lat="44.10273439322836" lon="3.5347150084878916"><ele>1292.0</ele><time>2026-04-03T06:25:50Z</time></trkpt><trkpt lat="44.10269716059053" lon="3.5349397412683645"><ele>1292.0</ele><time>2026-04-03T06:25:51Z</time></trkpt><trkpt lat="44.10264696472473" lon="3.5351640693728625"><ele>1292.0</ele><time>2026-04-03T06:25:52Z</time></trkpt><trkpt lat="44.10261979171673" lon="3.5353828121903983"><ele>1292.0</ele><time>2026-04-03T06:25:53Z</time></trkpt><trkpt lat="44.10258410337873" lon="3.5355749998416655"><ele>1292.0</ele><time>2026-04-03T06:25:54Z</time></trkpt><trkpt lat="44.10256561216947" lon="3.5357758881542565"><ele>1292.0</ele><time>2026-04-03T06:25:55Z</time></trkpt><trkpt lat="44.10253911439225" lon="3.5359781378337116"><ele>1292.6</ele><time>2026-04-03T06:25:56Z</time></trkpt><trkpt lat="44.10254064952812" lon="3.536153147683308"><ele>1293.1999999999998</ele><time>2026-04-03T06:25:57Z</time></trkpt><trkpt lat="44.1025594474994" lon="3.536312565843429"><ele>1293.8</ele><time>2026-04-03T06:25:58Z</time></trkpt><trkpt lat="44.102566494377264" lon="3.5364595293070167"><ele>1294.4</ele><time>2026-04-03T06:25:59Z</time></trkpt><trkpt lat="44.10258258820883" lon="3.5365985190118274"><ele>1295.0</ele><time>2026-04-03T06:26:00Z</time></trkpt><trkpt lat="44.10258015383825" lon="3.5367398178828537"><ele>1296.25</ele><time>2026-04-03T06:26:01Z</time></trkpt><trkpt lat="44.102575655808344" lon="3.536893974923552"><ele>1297.5</ele><time>2026-04-03T06:26:02Z</time></trkpt><trkpt lat="44.10255697012455" lon="3.537066938322458"><ele>1298.75</ele><time>2026-04-03T06:26:03Z</time></trkpt><trkpt lat="44.102531600523506" lon="3.537240401997626"><ele>1300.0</ele><time>2026-04-03T06:26:04Z</time></trkpt><trkpt lat="44.10250697753259" lon="3.537414412693323"><ele>1300.0</ele><time>2026-04-03T06:26:05Z</time></trkpt><trkpt lat="44.102502067976694" lon="3.537593023103271"><ele>1300.0</ele><time>2026-04-03T06:26:06Z</time></trkpt><trkpt lat="44.10252483910673" lon="3.5377933564348703"><ele>1300.0</ele><time>2026-04-03T06:26:07Z</time></trkpt><trkpt lat="44.102591706555636" lon="3.538051720505837"><ele>1300.6666666666665</ele><time>2026-04-03T06:26:08Z</time></trkpt><trkpt lat="44.10263764820719" lon="3.5383438124099507"><ele>1301.3333333333333</ele><time>2026-04-03T06:26:09Z</time></trkpt><trkpt lat="44.10265314999861" lon="3.538625057483953"><ele>1302.0</ele><time>2026-04-03T06:26:10Z</time></trkpt><trkpt lat="44.10267579696012" lon="3.5389147765288302"><ele>1304.0</ele><time>2026-04-03T06:26:11Z</time></trkpt><trkpt lat="44.10274282596769" lon="3.539189820966847"><ele>1306.0</ele><time>2026-04-03T06:26:12Z</time></trkpt><trkpt lat="44.10280638338371" lon="3.539454873444945"><ele>1308.0</ele><time>2026-04-03T06:26:13Z</time></trkpt><trkpt lat="44.1028453599687" lon="3.5397304002579437"><ele>1310.6666666666667</ele><time>2026-04-03T06:26:14Z</time></trkpt><trkpt lat="44.10289963321878" lon="3.53998926120072"><ele>1313.3333333333335</ele><time>2026-04-03T06:26:15Z</time></trkpt><trkpt lat="44.10292145692846" lon="3.5402439817750015"><ele>1316.0</ele><time>2026-04-03T06:26:16Z</time></trkpt><trkpt lat="44.102951020867685" lon="3.5404797107357613"><ele>1316.25</ele><time>2026-04-03T06:26:17Z</time></trkpt><trkpt lat="44.10297753324363" lon="3.540710924759604"><ele>1316.5</ele><time>2026-04-03T06:26:18Z</time></trkpt><trkpt lat="44.10299131434067" lon="3.5408325879829916"><ele>1316.75</ele><time>2026-04-03T06:26:19Z</time></trkpt><trkpt lat="44.10300729251853" lon="3.540998860808098"><ele>1317.0</ele><time>2026-04-03T06:26:20Z</time></trkpt><trkpt lat="44.10303433785597" lon="3.5411487288324164"><ele>1314.1999999999998</ele><time>2026-04-03T06:26:21Z</time></trkpt><trkpt lat="44.10301044597288" lon="3.541269156454884"><ele>1311.4</ele><time>2026-04-03T06:26:22Z</time></trkpt><trkpt lat="44.10296127987387" lon="3.5413665472610383"><ele>1308.6</ele><time>2026-04-03T06:26:24Z</time></trkpt><trkpt lat="44.10291589166765" lon="3.5414703324017234"><ele>1305.8000000000002</ele><time>2026-04-03T06:26:26Z</time></trkpt><trkpt lat="44.103028553144505" lon="3.541503770346478"><ele>1303.0</ele><time>2026-04-03T06:26:28Z</time></trkpt><trkpt lat="44.10308225901624" lon="3.5416003477132514"><ele>1303.0</ele><time>2026-04-03T06:26:31Z</time></trkpt><trkpt lat="44.10314385610846" lon="3.5416423946137905"><ele>1303.0</ele><time>2026-04-03T06:26:34Z</time></trkpt><trkpt lat="44.10321393071427" lon="3.5417119307172906"><ele>1303.0</ele><time>2026-04-03T06:26:36Z</time></trkpt><trkpt lat="44.103320945328306" lon="3.54180027004666"><ele>1303.0</ele><time>2026-04-03T06:26:38Z</time></trkpt><trkpt lat="44.10335435136164" lon="3.541908303251878"><ele>1303.0</ele><time>2026-04-03T06:26:39Z</time></trkpt><trkpt lat="44.10341314938972" lon="3.5420106217122975"><ele>1301.5</ele><time>2026-04-03T06:26:40Z</time></trkpt><trkpt lat="44.103461050016975" lon="3.5421476122506887"><ele>1300.0</ele><time>2026-04-03T06:26:41Z</time></trkpt><trkpt lat="44.103516398652395" lon="3.542310688847797"><ele>1298.5</ele><time>2026-04-03T06:26:42Z</time></trkpt><trkpt lat="44.103570903140685" lon="3.542473025549477"><ele>1297.0</ele><time>2026-04-03T06:26:43Z</time></trkpt><trkpt lat="44.10363235046771" lon="3.5426508061453963"><ele>1297.0</ele><time>2026-04-03T06:26:44Z</time></trkpt><trkpt lat="44.103696974017254" lon="3.5428435956169215"><ele>1297.0</ele><time>2026-04-03T06:26:45Z</time></trkpt><trkpt lat="44.10376240262927" lon="3.543049932963512"><ele>1297.0</ele><time>2026-04-03T06:26:46Z</time></trkpt><trkpt lat="44.10382917588463" lon="3.543265474264245"><ele>1294.6666666666665</ele><time>2026-04-03T06:26:47Z</time></trkpt><trkpt lat="44.10387864948551" lon="3.543491063858755"><ele>1292.3333333333333</ele><time>2026-04-03T06:26:48Z</time></trkpt><trkpt lat="44.10390413196485" lon="3.5437296616685647"><ele>1290.0</ele><time>2026-04-03T06:26:49Z</time></trkpt><trkpt lat="44.103923604613954" lon="3.5439638386898213"><ele>1287.25</ele><time>2026-04-03T06:26:50Z</time></trkpt><trkpt lat="44.103944322431076" lon="3.544185092569877"><ele>1284.5</ele><time>2026-04-03T06:26:51Z</time></trkpt><trkpt lat="44.10396321528489" lon="3.544385319303502"><ele>1281.75</ele><time>2026-04-03T06:26:52Z</time></trkpt><trkpt lat="44.103998870038936" lon="3.544561665082349"><ele>1279.0</ele><time>2026-04-03T06:26:53Z</time></trkpt><trkpt lat="44.10407602604058" lon="3.5447134984528947"><ele>1289.3333333333333</ele><time>2026-04-03T06:26:54Z</time></trkpt><trkpt lat="44.104197285970116" lon="3.5448327483363746"><ele>1299.6666666666667</ele><time>2026-04-03T06:26:55Z</time></trkpt><trkpt lat="44.104341961606174" lon="3.5449584536605565"><ele>1310.0</ele><time>2026-04-03T06:26:56Z</time></trkpt><trkpt lat="44.104484623885746" lon="3.5451266028021027"><ele>1310.0</ele><time>2026-04-03T06:26:57Z</time></trkpt><trkpt lat="44.10459133508745" lon="3.5453524295755794"><ele>1310.0</ele><time>2026-04-03T06:26:58Z</time></trkpt><trkpt lat="44.104730839261656" lon="3.5455494471306186"><ele>1310.0</ele><time>2026-04-03T06:26:59Z</time></trkpt><trkpt lat="44.10486257713499" lon="3.5457534095770926"><ele>1306.0</ele><time>2026-04-03T06:27:00Z</time></trkpt><trkpt lat="44.10501472696695" lon="3.5459229655477977"><ele>1302.0</ele><time>2026-04-03T06:27:01Z</time></trkpt><trkpt lat="44.10517109118548" lon="3.5460915225144345"><ele>1298.0</ele><time>2026-04-03T06:27:02Z</time></trkpt><trkpt lat="44.105279429295365" lon="3.5463173633051515"><ele>1298.0</ele><time>2026-04-03T06:27:03Z</time></trkpt><trkpt lat="44.10539799328069" lon="3.5465479552341153"><ele>1298.0</ele><time>2026-04-03T06:27:04Z</time></trkpt><trkpt lat="44.10552966640339" lon="3.546740518269238"><ele>1298.0</ele><time>2026-04-03T06:27:05Z</time></trkpt><trkpt lat="44.105653416029426" lon="3.5469104582645987"><ele>1304.25</ele><time>2026-04-03T06:27:06Z</time></trkpt><trkpt lat="44.10575694824298" lon="3.547072725087573"><ele>1310.5</ele><time>2026-04-03T06:27:07Z</time></trkpt><trkpt lat="44.105820627055095" lon="3.5472482129457976"><ele>1316.75</ele><time>2026-04-03T06:27:08Z</time></trkpt><trkpt lat="44.105825013553755" lon="3.5474320427588024"><ele>1323.0</ele><time>2026-04-03T06:27:09Z</time></trkpt><trkpt lat="44.10575332720105" lon="3.5475804166106575"><ele>1321.0</ele><time>2026-04-03T06:27:10Z</time></trkpt><trkpt lat="44.10572336209553" lon="3.5477494033839623"><ele>1319.0</ele><time>2026-04-03T06:27:11Z</time></trkpt><trkpt lat="44.1056933054467" lon="3.5479094127111392"><ele>1317.0</ele><time>2026-04-03T06:27:12Z</time></trkpt><trkpt lat="44.10573190963416" lon="3.548062657600959"><ele>1315.0</ele><time>2026-04-03T06:27:13Z</time></trkpt><trkpt lat="44.10583081191446" lon="3.548150461994701"><ele>1315.0</ele><time>2026-04-03T06:27:14Z</time></trkpt><trkpt lat="44.10594614021943" lon="3.5481444975885514"><ele>1315.0</ele><time>2026-04-03T06:27:15Z</time></trkpt><trkpt lat="44.1060540991317" lon="3.54807237552417"><ele>1315.0</ele><time>2026-04-03T06:27:16Z</time></trkpt><trkpt lat="44.10614268099875" lon="3.547899939284608"><ele>1315.0</ele><time>2026-04-03T06:27:17Z</time></trkpt><trkpt lat="44.10625537526706" lon="3.547738747520401"><ele>1317.6666666666665</ele><time>2026-04-03T06:27:18Z</time></trkpt><trkpt lat="44.10639430218032" lon="3.54756062730944"><ele>1320.3333333333333</ele><time>2026-04-03T06:27:19Z</time></trkpt><trkpt lat="44.10653034330616" lon="3.547385418053321"><ele>1323.0</ele><time>2026-04-03T06:27:20Z</time></trkpt><trkpt lat="44.10666587803444" lon="3.54719208074354"><ele>1331.0</ele><time>2026-04-03T06:27:21Z</time></trkpt><trkpt lat="44.10681847830883" lon="3.5470151076285656"><ele>1339.0</ele><time>2026-04-03T06:27:22Z</time></trkpt><trkpt lat="44.10697520394404" lon="3.5468480788735226"><ele>1347.0</ele><time>2026-04-03T06:27:23Z</time></trkpt><trkpt lat="44.107137026099345" lon="3.546698604842324"><ele>1347.0</ele><time>2026-04-03T06:27:24Z</time></trkpt><trkpt lat="44.10729716618301" lon="3.5465589204699683"><ele>1347.0</ele><time>2026-04-03T06:27:25Z</time></trkpt><trkpt lat="44.107435069285465" lon="3.546390339457778"><ele>1347.0</ele><time>2026-04-03T06:27:26Z</time></trkpt><trkpt lat="44.1075877402263" lon="3.5462606704406094"><ele>1349.6666666666667</ele><time>2026-04-03T06:27:27Z</time></trkpt><trkpt lat="44.1077473825893" lon="3.546155157500905"><ele>1352.3333333333335</ele><time>2026-04-03T06:27:28Z</time></trkpt><trkpt lat="44.10791305887508" lon="3.5461072825047086"><ele>1355.0</ele><time>2026-04-03T06:27:29Z</time></trkpt><trkpt lat="44.10808027159635" lon="3.5461041303973797"><ele>1355.0</ele><time>2026-04-03T06:27:30Z</time></trkpt><trkpt lat="44.10824259305899" lon="3.5461131291017196"><ele>1355.0</ele><time>2026-04-03T06:27:31Z</time></trkpt><trkpt lat="44.10841720404256" lon="3.5461391085288803"><ele>1355.0</ele><time>2026-04-03T06:27:32Z</time></trkpt><trkpt lat="44.10861311890577" lon="3.5461783146968138"><ele>1355.3333333333335</ele><time>2026-04-03T06:27:33Z</time></trkpt><trkpt lat="44.10880483984035" lon="3.5461956573071607"><ele>1355.6666666666667</ele><time>2026-04-03T06:27:34Z</time></trkpt><trkpt lat="44.10897705945765" lon="3.546178868007896"><ele>1356.0</ele><time>2026-04-03T06:27:35Z</time></trkpt><trkpt lat="44.10913569116062" lon="3.5462054757484682"><ele>1352.0</ele><time>2026-04-03T06:27:36Z</time></trkpt><trkpt lat="44.10928204594021" lon="3.5462652388611557"><ele>1348.0</ele><time>2026-04-03T06:27:37Z</time></trkpt><trkpt lat="44.109383389103634" lon="3.5464160369048736"><ele>1344.0</ele><time>2026-04-03T06:27:38Z</time></trkpt><trkpt lat="44.10946320336632" lon="3.5466021161919654"><ele>1344.0</ele><time>2026-04-03T06:27:39Z</time></trkpt><trkpt lat="44.109579016497136" lon="3.546755893671732"><ele>1344.0</ele><time>2026-04-03T06:27:40Z</time></trkpt><trkpt lat="44.10969615145847" lon="3.546912828986352"><ele>1344.0</ele><time>2026-04-03T06:27:41Z</time></trkpt><trkpt lat="44.109867343574116" lon="3.547025667751853"><ele>1345.3333333333333</ele><time>2026-04-03T06:27:42Z</time></trkpt><trkpt lat="44.11004542601743" lon="3.547137745034417"><ele>1346.6666666666665</ele><time>2026-04-03T06:27:43Z</time></trkpt><trkpt lat="44.110221404223346" lon="3.5472665810324093"><ele>1348.0</ele><time>2026-04-03T06:27:44Z</time></trkpt><trkpt lat="44.11040479443104" lon="3.5473633584010593"><ele>1348.0</ele><time>2026-04-03T06:27:45Z</time></trkpt><trkpt lat="44.110591150042424" lon="3.547428470040944"><ele>1348.0</ele><time>2026-04-03T06:27:46Z</time></trkpt><trkpt lat="44.110777539065616" lon="3.5474623107665026"><ele>1348.0</ele><time>2026-04-03T06:27:47Z</time></trkpt><trkpt lat="44.11096185203395" lon="3.547463123634391"><ele>1350.3333333333333</ele><time>2026-04-03T06:27:48Z</time></trkpt><trkpt lat="44.111132613405324" lon="3.5474329814701857"><ele>1352.6666666666667</ele><time>2026-04-03T06:27:49Z</time></trkpt><trkpt lat="44.1112754728658" lon="3.547369346401702"><ele>1355.0</ele><time>2026-04-03T06:27:50Z</time></trkpt><trkpt lat="44.11140479540167" lon="3.547332506629009"><ele>1355.0</ele><time>2026-04-03T06:27:51Z</time></trkpt><trkpt lat="44.11153187913107" lon="3.5473793752510043"><ele>1355.0</ele><time>2026-04-03T06:27:52Z</time></trkpt><trkpt lat="44.111627066213025" lon="3.5475231812589936"><ele>1355.0</ele><time>2026-04-03T06:27:53Z</time></trkpt><trkpt lat="44.111675917160234" lon="3.547701955393711"><ele>1355.0</ele><time>2026-04-03T06:27:54Z</time></trkpt><trkpt lat="44.111651274346976" lon="3.547919014220283"><ele>1355.3333333333335</ele><time>2026-04-03T06:27:55Z</time></trkpt><trkpt lat="44.11168890003505" lon="3.5481522781193844"><ele>1355.6666666666667</ele><time>2026-04-03T06:27:56Z</time></trkpt><trkpt lat="44.11175047290823" lon="3.548393484922681"><ele>1356.0</ele><time>2026-04-03T06:27:57Z</time></trkpt><trkpt lat="44.11186775637546" lon="3.5486229096358337"><ele>1351.6666666666667</ele><time>2026-04-03T06:27:58Z</time></trkpt><trkpt lat="44.11201167878091" lon="3.5488253555799196"><ele>1347.3333333333335</ele><time>2026-04-03T06:27:59Z</time></trkpt><trkpt lat="44.112172835273654" lon="3.5489849483892035"><ele>1343.0</ele><time>2026-04-03T06:28:00Z</time></trkpt><trkpt lat="44.112355332764764" lon="3.549087860040276"><ele>1349.6666666666667</ele><time>2026-04-03T06:28:01Z</time></trkpt><trkpt lat="44.112547444060034" lon="3.5491619199473576"><ele>1356.3333333333333</ele><time>2026-04-03T06:28:02Z</time></trkpt><trkpt lat="44.11275508872069" lon="3.549184130625759"><ele>1363.0</ele><time>2026-04-03T06:28:03Z</time></trkpt><trkpt lat="44.11296045749219" lon="3.549185810383267"><ele>1363.0</ele><time>2026-04-03T06:28:04Z</time></trkpt><trkpt lat="44.11316913970245" lon="3.5491916082048554"><ele>1363.0</ele><time>2026-04-03T06:28:05Z</time></trkpt><trkpt lat="44.11336872506933" lon="3.5491889279050377"><ele>1363.0</ele><time>2026-04-03T06:28:06Z</time></trkpt><trkpt lat="44.11355524741526" lon="3.5491517417138514"><ele>1365.25</ele><time>2026-04-03T06:28:07Z</time></trkpt><trkpt lat="44.11371976204126" lon="3.549086622342599"><ele>1367.5</ele><time>2026-04-03T06:28:08Z</time></trkpt><trkpt lat="44.11386294222464" lon="3.549042650381062"><ele>1369.75</ele><time>2026-04-03T06:28:09Z</time></trkpt><trkpt lat="44.11398816204717" lon="3.5490773310747685"><ele>1372.0</ele><time>2026-04-03T06:28:10Z</time></trkpt><trkpt lat="44.11407450709007" lon="3.5492315615787042"><ele>1374.0</ele><time>2026-04-03T06:28:11Z</time></trkpt><trkpt lat="44.11413436208918" lon="3.5494369252131657"><ele>1376.0</ele><time>2026-04-03T06:28:12Z</time></trkpt><trkpt lat="44.114233652356496" lon="3.5495971326167846"><ele>1378.0</ele><time>2026-04-03T06:28:13Z</time></trkpt><trkpt lat="44.11435746478341" lon="3.549775656131561"><ele>1373.6666666666665</ele><time>2026-04-03T06:28:14Z</time></trkpt><trkpt lat="44.11453787241281" lon="3.54989485682446"><ele>1369.3333333333333</ele><time>2026-04-03T06:28:15Z</time></trkpt><trkpt lat="44.114713643513745" lon="3.549960219077972"><ele>1365.0</ele><time>2026-04-03T06:28:16Z</time></trkpt><trkpt lat="44.11486712176344" lon="3.549937052911448"><ele>1368.25</ele><time>2026-04-03T06:28:17Z</time></trkpt><trkpt lat="44.11500070093923" lon="3.5498636397726275"><ele>1371.5</ele><time>2026-04-03T06:28:18Z</time></trkpt><trkpt lat="44.11511505772722" lon="3.549763651498236"><ele>1374.75</ele><time>2026-04-03T06:28:19Z</time></trkpt><trkpt lat="44.1152180033974" lon="3.5497355947490243"><ele>1378.0</ele><time>2026-04-03T06:28:20Z</time></trkpt><trkpt lat="44.115306614843725" lon="3.5497925282493705"><ele>1378.0</ele><time>2026-04-03T06:28:21Z</time></trkpt><trkpt lat="44.11536482096326" lon="3.5498841630921936"><ele>1378.0</ele><time>2026-04-03T06:28:22Z</time></trkpt><trkpt lat="44.115368362470974" lon="3.55001083210409"><ele>1378.0</ele><time>2026-04-03T06:28:23Z</time></trkpt><trkpt lat="44.11533315823218" lon="3.5501293733262256"><ele>1378.0</ele><time>2026-04-03T06:28:24Z</time></trkpt><trkpt lat="44.115275504518365" lon="3.5502472877626117"><ele>1378.0</ele><time>2026-04-03T06:28:25Z</time></trkpt><trkpt lat="44.115189981625534" lon="3.550378001086558"><ele>1377.0</ele><time>2026-04-03T06:28:26Z</time></trkpt><trkpt lat="44.11509617411351" lon="3.5505220157551736"><ele>1376.0</ele><time>2026-04-03T06:28:27Z</time></trkpt><trkpt lat="44.114993302363054" lon="3.550678341300471"><ele>1375.0</ele><time>2026-04-03T06:28:28Z</time></trkpt><trkpt lat="44.11488212133693" lon="3.550841115958695"><ele>1375.0</ele><time>2026-04-03T06:28:29Z</time></trkpt><trkpt lat="44.11475880095358" lon="3.5510088740182986"><ele>1375.0</ele><time>2026-04-03T06:28:30Z</time></trkpt><trkpt lat="44.11462447330264" lon="3.5511671914480734"><ele>1375.0</ele><time>2026-04-03T06:28:31Z</time></trkpt><trkpt lat="44.11448467924878" lon="3.5513163317305625"><ele>1379.0</ele><time>2026-04-03T06:28:32Z</time></trkpt><trkpt lat="44.11435396622" lon="3.5514756228451625"><ele>1383.0</ele><time>2026-04-03T06:28:33Z</time></trkpt><trkpt lat="44.114249954335676" lon="3.5516386821658457"><ele>1387.0</ele><time>2026-04-03T06:28:34Z</time></trkpt><trkpt lat="44.114182999871986" lon="3.551841135860379"><ele>1387.3333333333333</ele><time>2026-04-03T06:28:35Z</time></trkpt><trkpt lat="44.11414601882019" lon="3.552062277142674"><ele>1387.6666666666667</ele><time>2026-04-03T06:28:36Z</time></trkpt><trkpt lat="44.11414641889382" lon="3.5522884544480355"><ele>1388.0</ele><time>2026-04-03T06:28:37Z</time></trkpt><trkpt lat="44.11417942265183" lon="3.5525154738703115"><ele>1388.0</ele><time>2026-04-03T06:28:38Z</time></trkpt><trkpt lat="44.11424775429934" lon="3.552725323155615"><ele>1388.0</ele><time>2026-04-03T06:28:39Z</time></trkpt><trkpt lat="44.11434005796076" lon="3.55290334457262"><ele>1388.0</ele><time>2026-04-03T06:28:40Z</time></trkpt><trkpt lat="44.1144636600672" lon="3.553009376951139"><ele>1387.3333333333335</ele><time>2026-04-03T06:28:41Z</time></trkpt><trkpt lat="44.11461688112773" lon="3.553082245505729"><ele>1386.6666666666667</ele><time>2026-04-03T06:28:42Z</time></trkpt><trkpt lat="44.114791768611596" lon="3.553163546136688"><ele>1386.0</ele><time>2026-04-03T06:28:43Z</time></trkpt><trkpt lat="44.11497181511158" lon="3.5532706132034995"><ele>1389.0</ele><time>2026-04-03T06:28:44Z</time></trkpt><trkpt lat="44.11515726791487" lon="3.5534023580530727"><ele>1392.0</ele><time>2026-04-03T06:28:45Z</time></trkpt><trkpt lat="44.115327615819254" lon="3.5535442084117994"><ele>1395.0</ele><time>2026-04-03T06:28:46Z</time></trkpt><trkpt lat="44.11547075710488" lon="3.5536905584681047"><ele>1392.6666666666667</ele><time>2026-04-03T06:28:47Z</time></trkpt><trkpt lat="44.11557541368839" lon="3.553841070557378"><ele>1390.3333333333335</ele><time>2026-04-03T06:28:48Z</time></trkpt><trkpt lat="44.115670388300366" lon="3.5540045756084617"><ele>1388.0</ele><time>2026-04-03T06:28:49Z</time></trkpt><trkpt lat="44.11574907891631" lon="3.554197116375186"><ele>1392.6666666666667</ele><time>2026-04-03T06:28:50Z</time></trkpt><trkpt lat="44.115810596557594" lon="3.554402991082659"><ele>1397.3333333333333</ele><time>2026-04-03T06:28:51Z</time></trkpt><trkpt lat="44.11585837335121" lon="3.554626454238935"><ele>1402.0</ele><time>2026-04-03T06:28:52Z</time></trkpt><trkpt lat="44.115904397339406" lon="3.5548485582723015"><ele>1402.0</ele><time>2026-04-03T06:28:53Z</time></trkpt><trkpt lat="44.11596208394663" lon="3.555063784633659"><ele>1402.0</ele><time>2026-04-03T06:28:54Z</time></trkpt><trkpt lat="44.116022124726285" lon="3.5552723673656366"><ele>1402.0</ele><time>2026-04-03T06:28:55Z</time></trkpt><trkpt lat="44.1161140015511" lon="3.5555027011081086"><ele>1400.6666666666665</ele><time>2026-04-03T06:28:56Z</time></trkpt><trkpt lat="44.11621682092278" lon="3.5557395655342514"><ele>1399.3333333333333</ele><time>2026-04-03T06:28:57Z</time></trkpt><trkpt lat="44.11633404259386" lon="3.5559673548505124"><ele>1398.0</ele><time>2026-04-03T06:28:58Z</time></trkpt><trkpt lat="44.11645919906673" lon="3.556183322571401"><ele>1401.0</ele><time>2026-04-03T06:28:59Z</time></trkpt><trkpt lat="44.11659591502946" lon="3.55639991209557"><ele>1404.0</ele><time>2026-04-03T06:29:00Z</time></trkpt><trkpt lat="44.11670900319837" lon="3.5565958052421878"><ele>1407.0</ele><time>2026-04-03T06:29:01Z</time></trkpt><trkpt lat="44.11681244363562" lon="3.556756758627891"><ele>1407.0</ele><time>2026-04-03T06:29:02Z</time></trkpt><trkpt lat="44.116907592660574" lon="3.556891300114281"><ele>1407.0</ele><time>2026-04-03T06:29:03Z</time></trkpt><trkpt lat="44.116975724557214" lon="3.557002600530282"><ele>1407.0</ele><time>2026-04-03T06:29:04Z</time></trkpt><trkpt lat="44.11703105151189" lon="3.557070707135977"><ele>1407.0</ele><time>2026-04-03T06:29:05Z</time></trkpt><trkpt lat="44.117142598522804" lon="3.5570445124857497"><ele>1407.0</ele><time>2026-04-03T06:29:07Z</time></trkpt><trkpt lat="44.11716199018036" lon="3.5568851123403906"><ele>1407.0</ele><time>2026-04-03T06:29:09Z</time></trkpt><trkpt lat="44.11711179289942" lon="3.5567650823787953"><ele>1407.0</ele><time>2026-04-03T06:29:10Z</time></trkpt><trkpt lat="44.1170570815539" lon="3.5566202216806126"><ele>1407.0</ele><time>2026-04-03T06:29:11Z</time></trkpt><trkpt lat="44.11700804645693" lon="3.556444176714937"><ele>1407.0</ele><time>2026-04-03T06:29:12Z</time></trkpt><trkpt lat="44.116966501760196" lon="3.5562296922346692"><ele>1408.5</ele><time>2026-04-03T06:29:13Z</time></trkpt><trkpt lat="44.116935225121736" lon="3.556022990681287"><ele>1410.0</ele><time>2026-04-03T06:29:14Z</time></trkpt><trkpt lat="44.11693366803928" lon="3.5558253810745573"><ele>1411.5</ele><time>2026-04-03T06:29:15Z</time></trkpt><trkpt lat="44.116963833031974" lon="3.555632297216733"><ele>1413.0</ele><time>2026-04-03T06:29:16Z</time></trkpt><trkpt lat="44.11702423241613" lon="3.5554348881475795"><ele>1413.5</ele><time>2026-04-03T06:29:17Z</time></trkpt><trkpt lat="44.117102444316956" lon="3.555252087277545"><ele>1414.0</ele><time>2026-04-03T06:29:18Z</time></trkpt><trkpt lat="44.117180762383704" lon="3.555098059911427"><ele>1414.5</ele><time>2026-04-03T06:29:19Z</time></trkpt><trkpt lat="44.11725692657565" lon="3.554971927699746"><ele>1415.0</ele><time>2026-04-03T06:29:20Z</time></trkpt><trkpt lat="44.11732731086821" lon="3.5548840069687215"><ele>1415.4</ele><time>2026-04-03T06:29:21Z</time></trkpt><trkpt lat="44.117408709716834" lon="3.554838111552238"><ele>1415.8</ele><time>2026-04-03T06:29:23Z</time></trkpt><trkpt lat="44.117481922192034" lon="3.5549581234418457"><ele>1416.1999999999998</ele><time>2026-04-03T06:29:25Z</time></trkpt><trkpt lat="44.11751458629049" lon="3.554795632640569"><ele>1416.6</ele><time>2026-04-03T06:29:29Z</time></trkpt><trkpt lat="44.117472647220865" lon="3.5547266441815526"><ele>1417.0</ele><time>2026-04-03T06:29:31Z</time></trkpt><trkpt lat="44.11741577786439" lon="3.554851183935801"><ele>1417.0</ele><time>2026-04-03T06:30:04Z</time></trkpt><trkpt lat="44.11748694922576" lon="3.5549622355839317"><ele>1417.0</ele><time>2026-04-03T06:30:05Z</time></trkpt><trkpt lat="44.11754855096843" lon="3.555103677759978"><ele>1417.0</ele><time>2026-04-03T06:30:06Z</time></trkpt><trkpt lat="44.11763783914189" lon="3.5552807083531874"><ele>1417.0</ele><time>2026-04-03T06:30:07Z</time></trkpt><trkpt lat="44.11771418838609" lon="3.5554634829160565"><ele>1417.6666666666665</ele><time>2026-04-03T06:30:08Z</time></trkpt><trkpt lat="44.11779077411686" lon="3.5556942563593132"><ele>1418.3333333333333</ele><time>2026-04-03T06:30:09Z</time></trkpt><trkpt lat="44.117865135133115" lon="3.5559464273351002"><ele>1419.0</ele><time>2026-04-03T06:30:10Z</time></trkpt><trkpt lat="44.117959496405845" lon="3.5561910187356216"><ele>1418.6666666666667</ele><time>2026-04-03T06:30:11Z</time></trkpt><trkpt lat="44.11808777595992" lon="3.556450647082886"><ele>1418.3333333333335</ele><time>2026-04-03T06:30:12Z</time></trkpt><trkpt lat="44.11821409533311" lon="3.5566939224726215"><ele>1418.0</ele><time>2026-04-03T06:30:13Z</time></trkpt><trkpt lat="44.11834388183515" lon="3.5569428669458145"><ele>1419.6666666666667</ele><time>2026-04-03T06:30:14Z</time></trkpt><trkpt lat="44.11846083693173" lon="3.5571694135445453"><ele>1421.3333333333333</ele><time>2026-04-03T06:30:15Z</time></trkpt><trkpt lat="44.118583608368404" lon="3.5573883521616123"><ele>1423.0</ele><time>2026-04-03T06:30:16Z</time></trkpt><trkpt lat="44.11869383403203" lon="3.5575827416356662"><ele>1423.0</ele><time>2026-04-03T06:30:17Z</time></trkpt><trkpt lat="44.11879058765792" lon="3.5577585211244123"><ele>1423.0</ele><time>2026-04-03T06:30:18Z</time></trkpt><trkpt lat="44.11888111749791" lon="3.5579198078877727"><ele>1423.0</ele><time>2026-04-03T06:30:19Z</time></trkpt><trkpt lat="44.11896504240648" lon="3.5580668869136587"><ele>1423.0</ele><time>2026-04-03T06:30:20Z</time></trkpt><trkpt lat="44.119053422742105" lon="3.558219229113089"><ele>1424.0</ele><time>2026-04-03T06:30:21Z</time></trkpt><trkpt lat="44.11915228042049" lon="3.558374333485232"><ele>1425.0</ele><time>2026-04-03T06:30:22Z</time></trkpt><trkpt lat="44.119254228323754" lon="3.558505725705488"><ele>1426.0</ele><time>2026-04-03T06:30:23Z</time></trkpt><trkpt lat="44.11936441555497" lon="3.5586050406580307"><ele>1427.0</ele><time>2026-04-03T06:30:24Z</time></trkpt><trkpt lat="44.11948272589005" lon="3.558691367413999"><ele>1429.6666666666667</ele><time>2026-04-03T06:30:25Z</time></trkpt><trkpt lat="44.119613791937255" lon="3.558795192232137"><ele>1432.3333333333333</ele><time>2026-04-03T06:30:26Z</time></trkpt><trkpt lat="44.119746375565846" lon="3.558919945180222"><ele>1435.0</ele><time>2026-04-03T06:30:27Z</time></trkpt><trkpt lat="44.119879636043954" lon="3.559054483387086"><ele>1434.3333333333333</ele><time>2026-04-03T06:30:28Z</time></trkpt><trkpt lat="44.12002231355286" lon="3.559180079852288"><ele>1433.6666666666667</ele><time>2026-04-03T06:30:29Z</time></trkpt><trkpt lat="44.12017154068729" lon="3.559295523421942"><ele>1433.0</ele><time>2026-04-03T06:30:30Z</time></trkpt><trkpt lat="44.120318617067355" lon="3.559405627712165"><ele>1433.0</ele><time>2026-04-03T06:30:31Z</time></trkpt><trkpt lat="44.12045666047224" lon="3.5595054827659474"><ele>1433.0</ele><time>2026-04-03T06:30:32Z</time></trkpt><trkpt lat="44.12059110895504" lon="3.5595864239044417"><ele>1433.0</ele><time>2026-04-03T06:30:33Z</time></trkpt><trkpt lat="44.12072739440526" lon="3.559633320393798"><ele>1433.0</ele><time>2026-04-03T06:30:34Z</time></trkpt><trkpt lat="44.12087653233321" lon="3.5596357492364983"><ele>1436.6666666666667</ele><time>2026-04-03T06:30:35Z</time></trkpt><trkpt lat="44.121038059490004" lon="3.559612878778102"><ele>1440.3333333333333</ele><time>2026-04-03T06:30:36Z</time></trkpt><trkpt lat="44.121205728741614" lon="3.559575303317761"><ele>1444.0</ele><time>2026-04-03T06:30:37Z</time></trkpt><trkpt lat="44.12136623707988" lon="3.5595528789660826"><ele>1444.0</ele><time>2026-04-03T06:30:38Z</time></trkpt><trkpt lat="44.121519183172936" lon="3.559560890484227"><ele>1444.0</ele><time>2026-04-03T06:30:39Z</time></trkpt><trkpt lat="44.12166512312531" lon="3.559602066302239"><ele>1444.0</ele><time>2026-04-03T06:30:40Z</time></trkpt><trkpt lat="44.1217876596217" lon="3.5597110269142105"><ele>1444.0</ele><time>2026-04-03T06:30:41Z</time></trkpt><trkpt lat="44.121893566131725" lon="3.5598503756614615"><ele>1446.0</ele><time>2026-04-03T06:30:42Z</time></trkpt><trkpt lat="44.12199864625349" lon="3.5600089612830588"><ele>1448.0</ele><time>2026-04-03T06:30:43Z</time></trkpt><trkpt lat="44.12211437675947" lon="3.560172283337815"><ele>1450.0</ele><time>2026-04-03T06:30:44Z</time></trkpt><trkpt lat="44.122243297582614" lon="3.5603099613677154"><ele>1452.6666666666665</ele><time>2026-04-03T06:30:45Z</time></trkpt><trkpt lat="44.12238791734134" lon="3.5604118869532853"><ele>1455.3333333333333</ele><time>2026-04-03T06:30:46Z</time></trkpt><trkpt lat="44.122538960642196" lon="3.560477570303785"><ele>1458.0</ele><time>2026-04-03T06:30:47Z</time></trkpt><trkpt lat="44.1227097195182" lon="3.56053599290395"><ele>1458.0</ele><time>2026-04-03T06:30:48Z</time></trkpt><trkpt lat="44.122882857818745" lon="3.5606005828475955"><ele>1458.0</ele><time>2026-04-03T06:30:49Z</time></trkpt><trkpt lat="44.12305995940249" lon="3.560665341975322"><ele>1458.0</ele><time>2026-04-03T06:30:50Z</time></trkpt><trkpt lat="44.12323697102698" lon="3.5607306610198006"><ele>1458.6666666666667</ele><time>2026-04-03T06:30:51Z</time></trkpt><trkpt lat="44.12341263092281" lon="3.5607771210790267"><ele>1459.3333333333335</ele><time>2026-04-03T06:30:52Z</time></trkpt><trkpt lat="44.12359304622971" lon="3.5607839987719427"><ele>1460.0</ele><time>2026-04-03T06:30:53Z</time></trkpt><trkpt lat="44.123768352005015" lon="3.5607624713694133"><ele>1460.0</ele><time>2026-04-03T06:30:54Z</time></trkpt><trkpt lat="44.12394006459247" lon="3.5607484508679015"><ele>1460.0</ele><time>2026-04-03T06:30:55Z</time></trkpt><trkpt lat="44.12411389572517" lon="3.5607517470207477"><ele>1460.0</ele><time>2026-04-03T06:30:56Z</time></trkpt><trkpt lat="44.12428425056671" lon="3.5607905229457493"><ele>1461.0</ele><time>2026-04-03T06:30:57Z</time></trkpt><trkpt lat="44.12444373265655" lon="3.560851785187276"><ele>1462.0</ele><time>2026-04-03T06:30:58Z</time></trkpt><trkpt lat="44.124566177168674" lon="3.5609484465619095"><ele>1463.0</ele><time>2026-04-03T06:30:59Z</time></trkpt><trkpt lat="44.1246567256926" lon="3.561085643781019"><ele>1464.0</ele><time>2026-04-03T06:31:00Z</time></trkpt><trkpt lat="44.12473059547249" lon="3.561256513583343"><ele>1468.6666666666667</ele><time>2026-04-03T06:31:01Z</time></trkpt><trkpt lat="44.124776966665095" lon="3.5614646858267967"><ele>1473.3333333333335</ele><time>2026-04-03T06:31:02Z</time></trkpt><trkpt lat="44.12479049194793" lon="3.561687395382664"><ele>1478.0</ele><time>2026-04-03T06:31:03Z</time></trkpt><trkpt lat="44.124783370759374" lon="3.561932093467123"><ele>1480.6666666666667</ele><time>2026-04-03T06:31:04Z</time></trkpt><trkpt lat="44.12476131288856" lon="3.5621756579813675"><ele>1483.3333333333333</ele><time>2026-04-03T06:31:05Z</time></trkpt><trkpt lat="44.12473498312209" lon="3.5624298402851027"><ele>1486.0</ele><time>2026-04-03T06:31:06Z</time></trkpt><trkpt lat="44.124698085350126" lon="3.562696219039356"><ele>1487.6666666666665</ele><time>2026-04-03T06:31:07Z</time></trkpt><trkpt lat="44.1246553278539" lon="3.5629660497775375"><ele>1489.3333333333333</ele><time>2026-04-03T06:31:08Z</time></trkpt><trkpt lat="44.12459507162164" lon="3.563233284358914"><ele>1491.0</ele><time>2026-04-03T06:31:09Z</time></trkpt><trkpt lat="44.124559041582266" lon="3.563462806494292"><ele>1491.3333333333333</ele><time>2026-04-03T06:31:10Z</time></trkpt><trkpt lat="44.124540483548046" lon="3.5637199585160944"><ele>1491.6666666666665</ele><time>2026-04-03T06:31:11Z</time></trkpt><trkpt lat="44.12451674078917" lon="3.563966000258792"><ele>1492.0</ele><time>2026-04-03T06:31:12Z</time></trkpt><trkpt lat="44.12452041925135" lon="3.5642167527941933"><ele>1492.0</ele><time>2026-04-03T06:31:13Z</time></trkpt><trkpt lat="44.12454338200982" lon="3.5644669000989646"><ele>1492.0</ele><time>2026-04-03T06:31:14Z</time></trkpt><trkpt lat="44.124547533137665" lon="3.5647192627512476"><ele>1492.0</ele><time>2026-04-03T06:31:15Z</time></trkpt><trkpt lat="44.124534481633866" lon="3.5649770280519726"><ele>1493.0</ele><time>2026-04-03T06:31:16Z</time></trkpt><trkpt lat="44.124484418820984" lon="3.5652324316553954"><ele>1494.0</ele><time>2026-04-03T06:31:17Z</time></trkpt><trkpt lat="44.12445190813052" lon="3.56548196207167"><ele>1495.0</ele><time>2026-04-03T06:31:18Z</time></trkpt><trkpt lat="44.12439912460071" lon="3.565739282230932"><ele>1495.6666666666665</ele><time>2026-04-03T06:31:19Z</time></trkpt><trkpt lat="44.12434905328073" lon="3.56599425710876"><ele>1496.3333333333333</ele><time>2026-04-03T06:31:20Z</time></trkpt><trkpt lat="44.1243083743062" lon="3.5662516137075655"><ele>1497.0</ele><time>2026-04-03T06:31:21Z</time></trkpt><trkpt lat="44.12427716077838" lon="3.5665105136963007"><ele>1497.3333333333333</ele><time>2026-04-03T06:31:22Z</time></trkpt><trkpt lat="44.12424719816598" lon="3.56675812460704"><ele>1497.6666666666665</ele><time>2026-04-03T06:31:23Z</time></trkpt><trkpt lat="44.12420807820458" lon="3.5670015115348463"><ele>1498.0</ele><time>2026-04-03T06:31:24Z</time></trkpt><trkpt lat="44.124162545403244" lon="3.567228413270989"><ele>1498.0</ele><time>2026-04-03T06:31:25Z</time></trkpt><trkpt lat="44.12411603274152" lon="3.567453377655528"><ele>1498.0</ele><time>2026-04-03T06:31:26Z</time></trkpt><trkpt lat="44.12407352417029" lon="3.567659516386608"><ele>1498.0</ele><time>2026-04-03T06:31:27Z</time></trkpt><trkpt lat="44.124029657959" lon="3.5678279138658033"><ele>1499.8000000000002</ele><time>2026-04-03T06:31:28Z</time></trkpt><trkpt lat="44.12399088134279" lon="3.567969605859145"><ele>1501.6</ele><time>2026-04-03T06:31:29Z</time></trkpt><trkpt lat="44.12396162915143" lon="3.568096692815151"><ele>1503.4</ele><time>2026-04-03T06:31:30Z</time></trkpt><trkpt lat="44.12396184723766" lon="3.56821120578493"><ele>1505.1999999999998</ele><time>2026-04-03T06:31:31Z</time></trkpt><trkpt lat="44.12401170679503" lon="3.568301760219648"><ele>1507.0</ele><time>2026-04-03T06:31:32Z</time></trkpt><trkpt lat="44.12409280939628" lon="3.568366205762499"><ele>1507.0</ele><time>2026-04-03T06:31:33Z</time></trkpt><trkpt lat="44.12420449357466" lon="3.568417958037252"><ele>1507.0</ele><time>2026-04-03T06:31:34Z</time></trkpt><trkpt lat="44.12433079924081" lon="3.5684099208116966"><ele>1507.0</ele><time>2026-04-03T06:31:35Z</time></trkpt><trkpt lat="44.12447333063407" lon="3.568372343513264"><ele>1507.0</ele><time>2026-04-03T06:31:36Z</time></trkpt><trkpt lat="44.124633831360015" lon="3.568319292641906"><ele>1507.0</ele><time>2026-04-03T06:31:37Z</time></trkpt><trkpt lat="44.12476972323816" lon="3.5683085172776563"><ele>1507.0</ele><time>2026-04-03T06:31:38Z</time></trkpt><trkpt lat="44.12487169484224" lon="3.5683132490819225"><ele>1507.0</ele><time>2026-04-03T06:31:39Z</time></trkpt><trkpt lat="44.12495328297221" lon="3.568333914892604"><ele>1507.0</ele><time>2026-04-03T06:31:40Z</time></trkpt><trkpt lat="44.12503047649538" lon="3.5683534047500833"><ele>1507.0</ele><time>2026-04-03T06:31:41Z</time></trkpt><trkpt lat="44.12516500553193" lon="3.5683856978685693"><ele>1506.8</ele><time>2026-04-03T06:31:43Z</time></trkpt><trkpt lat="44.125250284576744" lon="3.568397176272002"><ele>1506.6</ele><time>2026-04-03T06:31:44Z</time></trkpt><trkpt lat="44.12531910264537" lon="3.56840495536086"><ele>1506.3999999999999</ele><time>2026-04-03T06:31:45Z</time></trkpt><trkpt lat="44.125425811230905" lon="3.5684399230365917"><ele>1506.1999999999998</ele><time>2026-04-03T06:31:47Z</time></trkpt><trkpt lat="44.125458798989236" lon="3.568530891473774"><ele>1506.0</ele><time>2026-04-03T06:31:50Z</time></trkpt><trkpt lat="44.1253242616418" lon="3.5686014463155673"><ele>1506.0</ele><time>2026-04-03T06:31:53Z</time></trkpt><trkpt lat="44.12522449856227" lon="3.568602706994319"><ele>1506.0</ele><time>2026-04-03T06:31:54Z</time></trkpt><trkpt lat="44.125142651646954" lon="3.568611183958533"><ele>1506.0</ele><time>2026-04-03T06:31:55Z</time></trkpt><trkpt lat="44.125070147339855" lon="3.5686221119119845"><ele>1506.0</ele><time>2026-04-03T06:31:56Z</time></trkpt><trkpt lat="44.12497426025658" lon="3.568612082252213"><ele>1506.0</ele><time>2026-04-03T06:31:58Z</time></trkpt><trkpt lat="44.12493743502415" lon="3.568286150514688"><ele>1506.0</ele><time>2026-04-03T06:32:00Z</time></trkpt><trkpt lat="44.124931985703675" lon="3.5685361385476377"><ele>1506.0</ele><time>2026-04-03T06:32:15Z</time></trkpt><trkpt lat="44.124958738419075" lon="3.5684405949228486"><ele>1506.0</ele><time>2026-04-03T06:32:22Z</time></trkpt><trkpt lat="44.12496083220116" lon="3.5683485808187734"><ele>1506.0</ele><time>2026-04-03T06:32:32Z</time></trkpt><trkpt lat="44.124934967598755" lon="3.568479143405741"><ele>1506.0</ele><time>2026-04-03T06:33:22Z</time></trkpt><trkpt lat="44.1249289689425" lon="3.568587238292936"><ele>1506.142857142857</ele><time>2026-04-03T06:33:26Z</time></trkpt><trkpt lat="44.124865249672595" lon="3.568564374906072"><ele>1506.2857142857142</ele><time>2026-04-03T06:33:54Z</time></trkpt><trkpt lat="44.12479904422797" lon="3.56853274484284"><ele>1506.4285714285716</ele><time>2026-04-03T06:33:55Z</time></trkpt><trkpt lat="44.12474707842225" lon="3.5684795609638913"><ele>1506.5714285714284</ele><time>2026-04-03T06:33:57Z</time></trkpt><trkpt lat="44.12467874382774" lon="3.568443475702858"><ele>1506.7142857142856</ele><time>2026-04-03T06:33:59Z</time></trkpt><trkpt lat="44.12465694089266" lon="3.568341833091791"><ele>1506.857142857143</ele><time>2026-04-03T06:34:02Z</time></trkpt><trkpt lat="44.12469672241546" lon="3.5682437562425267"><ele>1507.0</ele><time>2026-04-03T06:34:05Z</time></trkpt><trkpt lat="44.124799480639766" lon="3.568241232704737"><ele>1506.8</ele><time>2026-04-03T06:34:07Z</time></trkpt><trkpt lat="44.12490844532846" lon="3.5682610963400716"><ele>1506.6</ele><time>2026-04-03T06:34:09Z</time></trkpt><trkpt lat="44.12501471879699" lon="3.5682803317685154"><ele>1506.3999999999999</ele><time>2026-04-03T06:34:11Z</time></trkpt><trkpt lat="44.125137920041716" lon="3.5683149786720425"><ele>1506.1999999999998</ele><time>2026-04-03T06:34:13Z</time></trkpt><trkpt lat="44.125209616212196" lon="3.5683430230734947"><ele>1506.0</ele><time>2026-04-03T06:34:14Z</time></trkpt><trkpt lat="44.125293494261975" lon="3.5683790836910565"><ele>1506.0</ele><time>2026-04-03T06:34:15Z</time></trkpt><trkpt lat="44.12539919689806" lon="3.5684297516034764"><ele>1506.0</ele><time>2026-04-03T06:34:16Z</time></trkpt><trkpt lat="44.125541512031305" lon="3.568488041350917"><ele>1506.0</ele><time>2026-04-03T06:34:17Z</time></trkpt><trkpt lat="44.12572274640617" lon="3.5685552236269187"><ele>1506.0</ele><time>2026-04-03T06:34:18Z</time></trkpt><trkpt lat="44.12591410466491" lon="3.568622706623448"><ele>1511.3333333333333</ele><time>2026-04-03T06:34:19Z</time></trkpt><trkpt lat="44.12608217151735" lon="3.5687088636818856"><ele>1516.6666666666665</ele><time>2026-04-03T06:34:20Z</time></trkpt><trkpt lat="44.12619860636994" lon="3.568807806081565"><ele>1522.0</ele><time>2026-04-03T06:34:21Z</time></trkpt><trkpt lat="44.12631783235489" lon="3.5689466174176436"><ele>1522.0</ele><time>2026-04-03T06:34:22Z</time></trkpt><trkpt lat="44.126408784591256" lon="3.5690681233186"><ele>1522.0</ele><time>2026-04-03T06:34:23Z</time></trkpt><trkpt lat="44.126508258900664" lon="3.5691823549062187"><ele>1522.0</ele><time>2026-04-03T06:34:24Z</time></trkpt><trkpt lat="44.12661884930569" lon="3.5693216538862944"><ele>1522.0</ele><time>2026-04-03T06:34:25Z</time></trkpt><trkpt lat="44.126777013507265" lon="3.5694431102971778"><ele>1521.3333333333333</ele><time>2026-04-03T06:34:26Z</time></trkpt><trkpt lat="44.126965960578566" lon="3.5695478197481236"><ele>1520.6666666666667</ele><time>2026-04-03T06:34:27Z</time></trkpt><trkpt lat="44.12712335308365" lon="3.569655750475917"><ele>1520.0</ele><time>2026-04-03T06:34:28Z</time></trkpt><trkpt lat="44.127262748286284" lon="3.569740944353168"><ele>1518.5</ele><time>2026-04-03T06:34:29Z</time></trkpt><trkpt lat="44.127402394659654" lon="3.569786943075086"><ele>1517.0</ele><time>2026-04-03T06:34:30Z</time></trkpt><trkpt lat="44.12754028657248" lon="3.569788705120215"><ele>1515.5</ele><time>2026-04-03T06:34:31Z</time></trkpt><trkpt lat="44.12768067130361" lon="3.5697828616685507"><ele>1514.0</ele><time>2026-04-03T06:34:32Z</time></trkpt><trkpt lat="44.12781409235635" lon="3.569786592147321"><ele>1514.0</ele><time>2026-04-03T06:34:33Z</time></trkpt><trkpt lat="44.127948835704785" lon="3.5697974112595072"><ele>1514.0</ele><time>2026-04-03T06:34:34Z</time></trkpt><trkpt lat="44.128088231156774" lon="3.5698112783919482"><ele>1514.0</ele><time>2026-04-03T06:34:35Z</time></trkpt><trkpt lat="44.128237659056" lon="3.5698198355847097"><ele>1514.0</ele><time>2026-04-03T06:34:36Z</time></trkpt><trkpt lat="44.12840920078973" lon="3.5698025988888267"><ele>1513.3333333333335</ele><time>2026-04-03T06:34:37Z</time></trkpt><trkpt lat="44.12859359686121" lon="3.569753344504184"><ele>1512.6666666666667</ele><time>2026-04-03T06:34:38Z</time></trkpt><trkpt lat="44.12878225970268" lon="3.569657340487357"><ele>1512.0</ele><time>2026-04-03T06:34:39Z</time></trkpt><trkpt lat="44.128974687770295" lon="3.5695297719181243"><ele>1508.0</ele><time>2026-04-03T06:34:40Z</time></trkpt><trkpt lat="44.1291682892036" lon="3.569399588335134"><ele>1504.0</ele><time>2026-04-03T06:34:41Z</time></trkpt><trkpt lat="44.12938005284669" lon="3.5692902481778086"><ele>1500.0</ele><time>2026-04-03T06:34:42Z</time></trkpt><trkpt lat="44.12958531295788" lon="3.5691966922089304"><ele>1500.0</ele><time>2026-04-03T06:34:43Z</time></trkpt><trkpt lat="44.12978976618688" lon="3.5691098440866855"><ele>1500.0</ele><time>2026-04-03T06:34:44Z</time></trkpt><trkpt lat="44.1299762535767" lon="3.5690278614313615"><ele>1500.0</ele><time>2026-04-03T06:34:45Z</time></trkpt><trkpt lat="44.13013232027986" lon="3.5689567838845986"><ele>1502.0</ele><time>2026-04-03T06:34:46Z</time></trkpt><trkpt lat="44.1302667628261" lon="3.568862518041283"><ele>1504.0</ele><time>2026-04-03T06:34:47Z</time></trkpt><trkpt lat="44.130380961319275" lon="3.5687230240391314"><ele>1506.0</ele><time>2026-04-03T06:34:48Z</time></trkpt><trkpt lat="44.13044779393462" lon="3.568527422549125"><ele>1501.3333333333333</ele><time>2026-04-03T06:34:49Z</time></trkpt><trkpt lat="44.13047393527696" lon="3.5683100172651536"><ele>1496.6666666666665</ele><time>2026-04-03T06:34:50Z</time></trkpt><trkpt lat="44.130485930908016" lon="3.5680579763918083"><ele>1492.0</ele><time>2026-04-03T06:34:51Z</time></trkpt><trkpt lat="44.1304998913664" lon="3.567799285954108"><ele>1489.6666666666665</ele><time>2026-04-03T06:34:52Z</time></trkpt><trkpt lat="44.13053257394852" lon="3.5675295009373342"><ele>1487.3333333333333</ele><time>2026-04-03T06:34:53Z</time></trkpt><trkpt lat="44.13058396469784" lon="3.5672520760072772"><ele>1485.0</ele><time>2026-04-03T06:34:54Z</time></trkpt><trkpt lat="44.13065656600043" lon="3.566974315041235"><ele>1494.5</ele><time>2026-04-03T06:34:55Z</time></trkpt><trkpt lat="44.130753420762105" lon="3.5666812282077545"><ele>1504.0</ele><time>2026-04-03T06:34:56Z</time></trkpt><trkpt lat="44.13086342746984" lon="3.566410731474202"><ele>1499.0</ele><time>2026-04-03T06:34:57Z</time></trkpt><trkpt lat="44.130981077952015" lon="3.5661321727960087"><ele>1494.0</ele><time>2026-04-03T06:34:58Z</time></trkpt><trkpt lat="44.13112279375395" lon="3.5658861057224636"><ele>1494.0</ele><time>2026-04-03T06:34:59Z</time></trkpt><trkpt lat="44.13125552005994" lon="3.5656146526715737"><ele>1494.0</ele><time>2026-04-03T06:35:00Z</time></trkpt><trkpt lat="44.13140354639748" lon="3.565364152885808"><ele>1496.0</ele><time>2026-04-03T06:35:01Z</time></trkpt><trkpt lat="44.13154051740181" lon="3.5651128238222087"><ele>1498.0</ele><time>2026-04-03T06:35:02Z</time></trkpt><trkpt lat="44.131665035167075" lon="3.564885941065877"><ele>1500.0</ele><time>2026-04-03T06:35:03Z</time></trkpt><trkpt lat="44.13179198101419" lon="3.564697408252236"><ele>1497.0</ele><time>2026-04-03T06:35:04Z</time></trkpt><trkpt lat="44.13194114274572" lon="3.564518848672194"><ele>1494.0</ele><time>2026-04-03T06:35:05Z</time></trkpt><trkpt lat="44.13210701225696" lon="3.5644160403226555"><ele>1491.0</ele><time>2026-04-03T06:35:06Z</time></trkpt><trkpt lat="44.13227432125717" lon="3.5643640903118"><ele>1492.3333333333333</ele><time>2026-04-03T06:35:07Z</time></trkpt><trkpt lat="44.132443530050914" lon="3.564359591478415"><ele>1493.6666666666665</ele><time>2026-04-03T06:35:08Z</time></trkpt><trkpt lat="44.13263289652655" lon="3.5644040179694585"><ele>1495.0</ele><time>2026-04-03T06:35:09Z</time></trkpt><trkpt lat="44.13282584211816" lon="3.5644634624506244"><ele>1495.0</ele><time>2026-04-03T06:35:10Z</time></trkpt><trkpt lat="44.133036757625575" lon="3.5645024108143355"><ele>1495.0</ele><time>2026-04-03T06:35:11Z</time></trkpt><trkpt lat="44.13325210180199" lon="3.564534175664392"><ele>1495.0</ele><time>2026-04-03T06:35:12Z</time></trkpt><trkpt lat="44.13345538705648" lon="3.5645433829048425"><ele>1494.6666666666665</ele><time>2026-04-03T06:35:13Z</time></trkpt><trkpt lat="44.1336450222054" lon="3.5645475188423896"><ele>1494.3333333333333</ele><time>2026-04-03T06:35:14Z</time></trkpt><trkpt lat="44.13380747923282" lon="3.5645296820372794"><ele>1494.0</ele><time>2026-04-03T06:35:15Z</time></trkpt><trkpt lat="44.13396585410189" lon="3.564469810253844"><ele>1495.6666666666667</ele><time>2026-04-03T06:35:16Z</time></trkpt><trkpt lat="44.13410306057788" lon="3.564344791053428"><ele>1497.3333333333335</ele><time>2026-04-03T06:35:17Z</time></trkpt><trkpt lat="44.13422401395113" lon="3.5641707617565097"><ele>1499.0</ele><time>2026-04-03T06:35:18Z</time></trkpt><trkpt lat="44.134347824107124" lon="3.5639638268413383"><ele>1499.0</ele><time>2026-04-03T06:35:19Z</time></trkpt><trkpt lat="44.13447904623648" lon="3.5637416172693355"><ele>1499.0</ele><time>2026-04-03T06:35:20Z</time></trkpt><trkpt lat="44.134599374108994" lon="3.5635049588301406"><ele>1499.0</ele><time>2026-04-03T06:35:21Z</time></trkpt><trkpt lat="44.13468641728963" lon="3.5632395796217833"><ele>1496.0</ele><time>2026-04-03T06:35:22Z</time></trkpt><trkpt lat="44.134744677743704" lon="3.562954758601265"><ele>1493.0</ele><time>2026-04-03T06:35:23Z</time></trkpt><trkpt lat="44.13479616687735" lon="3.5626809773788746"><ele>1490.0</ele><time>2026-04-03T06:35:24Z</time></trkpt><trkpt lat="44.13484005262846" lon="3.5624551496355803"><ele>1490.75</ele><time>2026-04-03T06:35:25Z</time></trkpt><trkpt lat="44.134902726832344" lon="3.562255685366361"><ele>1491.5</ele><time>2026-04-03T06:35:26Z</time></trkpt><trkpt lat="44.13499379662191" lon="3.562105033530401"><ele>1492.25</ele><time>2026-04-03T06:35:27Z</time></trkpt><trkpt lat="44.135086754407126" lon="3.5619690380977187"><ele>1493.0</ele><time>2026-04-03T06:35:28Z</time></trkpt><trkpt lat="44.13519568943974" lon="3.561818113484771"><ele>1493.0</ele><time>2026-04-03T06:35:29Z</time></trkpt><trkpt lat="44.13533529889923" lon="3.5616759519178136"><ele>1493.0</ele><time>2026-04-03T06:35:30Z</time></trkpt><trkpt lat="44.1354678106858" lon="3.5615398314202285"><ele>1493.0</ele><time>2026-04-03T06:35:31Z</time></trkpt><trkpt lat="44.13560649423341" lon="3.5614322841581716"><ele>1494.25</ele><time>2026-04-03T06:35:32Z</time></trkpt><trkpt lat="44.135747500953464" lon="3.5613611605335294"><ele>1495.5</ele><time>2026-04-03T06:35:33Z</time></trkpt><trkpt lat="44.135879690196205" lon="3.561338031973014"><ele>1496.75</ele><time>2026-04-03T06:35:34Z</time></trkpt><trkpt lat="44.13598555581871" lon="3.5613887325607414"><ele>1498.0</ele><time>2026-04-03T06:35:35Z</time></trkpt><trkpt lat="44.13606074287461" lon="3.5614573557456843"><ele>1498.0</ele><time>2026-04-03T06:35:36Z</time></trkpt><trkpt lat="44.13612194255317" lon="3.5615376197494304"><ele>1498.0</ele><time>2026-04-03T06:35:37Z</time></trkpt><trkpt lat="44.13615961285242" lon="3.561671817270023"><ele>1498.0</ele><time>2026-04-03T06:35:38Z</time></trkpt><trkpt lat="44.136183558620786" lon="3.5618225330423217"><ele>1498.0</ele><time>2026-04-03T06:35:39Z</time></trkpt><trkpt lat="44.1361897880287" lon="3.561983044483325"><ele>1498.0</ele><time>2026-04-03T06:35:40Z</time></trkpt><trkpt lat="44.13617754242725" lon="3.5621564486864163"><ele>1497.5</ele><time>2026-04-03T06:35:41Z</time></trkpt><trkpt lat="44.136150374407194" lon="3.5623467280656866"><ele>1497.0</ele><time>2026-04-03T06:35:42Z</time></trkpt><trkpt lat="44.13611366693778" lon="3.5625443049381413"><ele>1496.5</ele><time>2026-04-03T06:35:43Z</time></trkpt><trkpt lat="44.13606962727357" lon="3.5627543515095725"><ele>1496.0</ele><time>2026-04-03T06:35:44Z</time></trkpt><trkpt lat="44.13603532009086" lon="3.562951938541915"><ele>1495.0</ele><time>2026-04-03T06:35:45Z</time></trkpt><trkpt lat="44.13602345296494" lon="3.5631478014606075"><ele>1494.0</ele><time>2026-04-03T06:35:46Z</time></trkpt><trkpt lat="44.13604587351269" lon="3.5633331333729488"><ele>1493.0</ele><time>2026-04-03T06:35:47Z</time></trkpt><trkpt lat="44.13609833839171" lon="3.563504138062472"><ele>1492.0</ele><time>2026-04-03T06:35:48Z</time></trkpt><trkpt lat="44.13619332084425" lon="3.563645727704126"><ele>1493.3333333333333</ele><time>2026-04-03T06:35:49Z</time></trkpt><trkpt lat="44.13630990556698" lon="3.563775056342491"><ele>1494.6666666666667</ele><time>2026-04-03T06:35:50Z</time></trkpt><trkpt lat="44.13644144431813" lon="3.563898268024624"><ele>1496.0</ele><time>2026-04-03T06:35:51Z</time></trkpt><trkpt lat="44.13659872062639" lon="3.5640141127836777"><ele>1491.6666666666667</ele><time>2026-04-03T06:35:52Z</time></trkpt><trkpt lat="44.13676140078439" lon="3.56415303390184"><ele>1487.3333333333333</ele><time>2026-04-03T06:35:53Z</time></trkpt><trkpt lat="44.13693115987767" lon="3.56428961403418"><ele>1483.0</ele><time>2026-04-03T06:35:54Z</time></trkpt><trkpt lat="44.137109244062344" lon="3.5644168610174884"><ele>1483.0</ele><time>2026-04-03T06:35:55Z</time></trkpt><trkpt lat="44.13729048679888" lon="3.5645062159155736"><ele>1483.0</ele><time>2026-04-03T06:35:56Z</time></trkpt><trkpt lat="44.13749977869124" lon="3.564502516391117"><ele>1483.0</ele><time>2026-04-03T06:35:57Z</time></trkpt><trkpt lat="44.1377155017646" lon="3.564507804810113"><ele>1478.6666666666665</ele><time>2026-04-03T06:35:58Z</time></trkpt><trkpt lat="44.13793085713555" lon="3.564487997280242"><ele>1474.3333333333333</ele><time>2026-04-03T06:35:59Z</time></trkpt><trkpt lat="44.138151913900465" lon="3.5644812228457066"><ele>1470.0</ele><time>2026-04-03T06:36:00Z</time></trkpt><trkpt lat="44.13837153226838" lon="3.564511548156878"><ele>1468.0</ele><time>2026-04-03T06:36:01Z</time></trkpt><trkpt lat="44.13859302154657" lon="3.564490503537022"><ele>1466.0</ele><time>2026-04-03T06:36:02Z</time></trkpt><trkpt lat="44.138815756404036" lon="3.5645034994585894"><ele>1464.0</ele><time>2026-04-03T06:36:03Z</time></trkpt><trkpt lat="44.13903009206752" lon="3.5645626430207384"><ele>1469.5</ele><time>2026-04-03T06:36:04Z</time></trkpt><trkpt lat="44.13924553160411" lon="3.564647898903281"><ele>1475.0</ele><time>2026-04-03T06:36:05Z</time></trkpt><trkpt lat="44.1394634545167" lon="3.5647420914548382"><ele>1475.0</ele><time>2026-04-03T06:36:06Z</time></trkpt><trkpt lat="44.13968418751011" lon="3.564798210598604"><ele>1475.0</ele><time>2026-04-03T06:36:07Z</time></trkpt><trkpt lat="44.13990796964268" lon="3.5648345969505715"><ele>1469.0</ele><time>2026-04-03T06:36:08Z</time></trkpt><trkpt lat="44.140138683898556" lon="3.5648024460051566"><ele>1463.0</ele><time>2026-04-03T06:36:09Z</time></trkpt><trkpt lat="44.14036250217726" lon="3.5647258861776225"><ele>1463.0</ele><time>2026-04-03T06:36:10Z</time></trkpt><trkpt lat="44.140591270862195" lon="3.5646753697661664"><ele>1463.0</ele><time>2026-04-03T06:36:11Z</time></trkpt><trkpt lat="44.14082294829736" lon="3.564694713258415"><ele>1459.5</ele><time>2026-04-03T06:36:12Z</time></trkpt><trkpt lat="44.14106128288854" lon="3.5646959667959974"><ele>1456.0</ele><time>2026-04-03T06:36:13Z</time></trkpt><trkpt lat="44.14130612676556" lon="3.5646646167478164"><ele>1453.0</ele><time>2026-04-03T06:36:14Z</time></trkpt><trkpt lat="44.14155572594276" lon="3.564621829771798"><ele>1450.0</ele><time>2026-04-03T06:36:15Z</time></trkpt><trkpt lat="44.14180533418854" lon="3.5645369848001542"><ele>1439.5</ele><time>2026-04-03T06:36:16Z</time></trkpt><trkpt lat="44.14205782257616" lon="3.5644402043063512"><ele>1429.0</ele><time>2026-04-03T06:36:17Z</time></trkpt><trkpt lat="44.142310986130916" lon="3.564338863970106"><ele>1429.5</ele><time>2026-04-03T06:36:18Z</time></trkpt><trkpt lat="44.142571999294226" lon="3.5642343703713086"><ele>1430.0</ele><time>2026-04-03T06:36:19Z</time></trkpt><trkpt lat="44.14282402969198" lon="3.564125974635935"><ele>1430.0</ele><time>2026-04-03T06:36:20Z</time></trkpt><trkpt lat="44.143072345820926" lon="3.5640235216318152"><ele>1430.0</ele><time>2026-04-03T06:36:21Z</time></trkpt><trkpt lat="44.143319240363915" lon="3.56391310026382"><ele>1428.0</ele><time>2026-04-03T06:36:22Z</time></trkpt><trkpt lat="44.14356367284" lon="3.5637809005761616"><ele>1426.0</ele><time>2026-04-03T06:36:23Z</time></trkpt><trkpt lat="44.1437860836596" lon="3.5636229331412674"><ele>1420.5</ele><time>2026-04-03T06:36:24Z</time></trkpt><trkpt lat="44.14401082330121" lon="3.5634361150570215"><ele>1415.0</ele><time>2026-04-03T06:36:25Z</time></trkpt><trkpt lat="44.14422995034605" lon="3.563268200318716"><ele>1414.0</ele><time>2026-04-03T06:36:26Z</time></trkpt><trkpt lat="44.14445327222983" lon="3.5631105516222257"><ele>1413.0</ele><time>2026-04-03T06:36:27Z</time></trkpt><trkpt lat="44.14466982921738" lon="3.5629707398186614"><ele>1409.6666666666667</ele><time>2026-04-03T06:36:28Z</time></trkpt><trkpt lat="44.14487558181465" lon="3.562849149780145"><ele>1406.3333333333335</ele><time>2026-04-03T06:36:29Z</time></trkpt><trkpt lat="44.14506387769203" lon="3.5627389397699782"><ele>1403.0</ele><time>2026-04-03T06:36:30Z</time></trkpt><trkpt lat="44.1452221160815" lon="3.5626246773512693"><ele>1403.0</ele><time>2026-04-03T06:36:31Z</time></trkpt><trkpt lat="44.145328976257936" lon="3.562510871864371"><ele>1403.0</ele><time>2026-04-03T06:36:32Z</time></trkpt><trkpt lat="44.14539956410874" lon="3.5624143824740635"><ele>1403.0</ele><time>2026-04-03T06:36:33Z</time></trkpt><trkpt lat="44.14544950824127" lon="3.562334062318154"><ele>1403.0</ele><time>2026-04-03T06:36:34Z</time></trkpt><trkpt lat="44.14549777624029" lon="3.5622327766473814"><ele>1403.0</ele><time>2026-04-03T06:36:36Z</time></trkpt><trkpt lat="44.145528909938655" lon="3.562118896324628"><ele>1404.0</ele><time>2026-04-03T06:37:11Z</time></trkpt><trkpt lat="44.14556916336742" lon="3.5620138008727187"><ele>1405.0</ele><time>2026-04-03T06:37:12Z</time></trkpt><trkpt lat="44.14563357171381" lon="3.561894400877847"><ele>1406.0</ele><time>2026-04-03T06:37:13Z</time></trkpt><trkpt lat="44.145704271558266" lon="3.561752848936471"><ele>1407.0</ele><time>2026-04-03T06:37:14Z</time></trkpt><trkpt lat="44.145783073612556" lon="3.5615944989499564"><ele>1407.0</ele><time>2026-04-03T06:37:15Z</time></trkpt><trkpt lat="44.14588398136809" lon="3.5614176378658917"><ele>1407.0</ele><time>2026-04-03T06:37:16Z</time></trkpt><trkpt lat="44.145973856429556" lon="3.5611885845552673"><ele>1407.0</ele><time>2026-04-03T06:37:17Z</time></trkpt><trkpt lat="44.146080883926764" lon="3.5609446547419856"><ele>1403.3333333333333</ele><time>2026-04-03T06:37:18Z</time></trkpt><trkpt lat="44.14619155027805" lon="3.560703244049665"><ele>1399.6666666666665</ele><time>2026-04-03T06:37:19Z</time></trkpt><trkpt lat="44.146313687900964" lon="3.560456248781062"><ele>1396.0</ele><time>2026-04-03T06:37:20Z</time></trkpt><trkpt lat="44.14645464021377" lon="3.560231251969391"><ele>1398.0</ele><time>2026-04-03T06:37:21Z</time></trkpt><trkpt lat="44.146610356622546" lon="3.5600614475549306"><ele>1400.0</ele><time>2026-04-03T06:37:22Z</time></trkpt><trkpt lat="44.1467382811895" lon="3.559876557328432"><ele>1402.0</ele><time>2026-04-03T06:37:23Z</time></trkpt><trkpt lat="44.146849598063916" lon="3.559699386615429"><ele>1397.0</ele><time>2026-04-03T06:37:24Z</time></trkpt><trkpt lat="44.1469147369971" lon="3.5594906833607034"><ele>1392.0</ele><time>2026-04-03T06:37:25Z</time></trkpt><trkpt lat="44.14694783640553" lon="3.5592534635158892"><ele>1387.0</ele><time>2026-04-03T06:37:26Z</time></trkpt><trkpt lat="44.146981157893485" lon="3.558986527827905"><ele>1387.0</ele><time>2026-04-03T06:37:27Z</time></trkpt><trkpt lat="44.14705635492233" lon="3.558730506583314"><ele>1387.0</ele><time>2026-04-03T06:37:28Z</time></trkpt><trkpt lat="44.14714523700018" lon="3.558494527738709"><ele>1387.0</ele><time>2026-04-03T06:37:29Z</time></trkpt><trkpt lat="44.14726465031952" lon="3.5582817296679576"><ele>1384.0</ele><time>2026-04-03T06:37:30Z</time></trkpt><trkpt lat="44.14740266765384" lon="3.5580868225104614"><ele>1381.0</ele><time>2026-04-03T06:37:31Z</time></trkpt><trkpt lat="44.14754910377029" lon="3.557899406123945"><ele>1378.0</ele><time>2026-04-03T06:37:32Z</time></trkpt><trkpt lat="44.14772465855727" lon="3.55779969880428"><ele>1378.0</ele><time>2026-04-03T06:37:33Z</time></trkpt><trkpt lat="44.1478995625042" lon="3.557719344780594"><ele>1378.0</ele><time>2026-04-03T06:37:34Z</time></trkpt><trkpt lat="44.148090153648575" lon="3.557622578775576"><ele>1378.0</ele><time>2026-04-03T06:37:35Z</time></trkpt><trkpt lat="44.148271366777706" lon="3.5575328824783803"><ele>1374.6666666666665</ele><time>2026-04-03T06:37:36Z</time></trkpt><trkpt lat="44.14842849586212" lon="3.557384576751495"><ele>1371.3333333333333</ele><time>2026-04-03T06:37:37Z</time></trkpt><trkpt lat="44.148547613279746" lon="3.557174243404662"><ele>1368.0</ele><time>2026-04-03T06:37:38Z</time></trkpt><trkpt lat="44.14868197171972" lon="3.55694934892093"><ele>1368.0</ele><time>2026-04-03T06:37:39Z</time></trkpt><trkpt lat="44.148858251272955" lon="3.5567713355265798"><ele>1368.0</ele><time>2026-04-03T06:37:40Z</time></trkpt><trkpt lat="44.14902766879589" lon="3.5565992730099603"><ele>1368.0</ele><time>2026-04-03T06:37:41Z</time></trkpt><trkpt lat="44.14920839692934" lon="3.556503068429343"><ele>1374.0</ele><time>2026-04-03T06:37:42Z</time></trkpt><trkpt lat="44.14939891846672" lon="3.5564345387896097"><ele>1380.0</ele><time>2026-04-03T06:37:43Z</time></trkpt><trkpt lat="44.14960251240638" lon="3.5564258840610923"><ele>1386.0</ele><time>2026-04-03T06:37:44Z</time></trkpt><trkpt lat="44.14979213168238" lon="3.556408469511485"><ele>1388.25</ele><time>2026-04-03T06:37:45Z</time></trkpt><trkpt lat="44.149952830974335" lon="3.55642658646844"><ele>1390.5</ele><time>2026-04-03T06:37:46Z</time></trkpt><trkpt lat="44.15008627661165" lon="3.5563911998684876"><ele>1392.75</ele><time>2026-04-03T06:37:47Z</time></trkpt><trkpt lat="44.150183051732775" lon="3.556312090678406"><ele>1395.0</ele><time>2026-04-03T06:37:48Z</time></trkpt><trkpt lat="44.15023644368776" lon="3.5561792990735115"><ele>1389.4</ele><time>2026-04-03T06:37:49Z</time></trkpt><trkpt lat="44.150255300859996" lon="3.556037929054578"><ele>1383.8</ele><time>2026-04-03T06:37:50Z</time></trkpt><trkpt lat="44.15024815648382" lon="3.555895841983399"><ele>1378.1999999999998</ele><time>2026-04-03T06:37:51Z</time></trkpt><trkpt lat="44.150251464601084" lon="3.5558011408191756"><ele>1372.6</ele><time>2026-04-03T06:37:52Z</time></trkpt><trkpt lat="44.15025523950695" lon="3.5557049591137053"><ele>1367.0</ele><time>2026-04-03T06:37:55Z</time></trkpt><trkpt lat="44.15026032230253" lon="3.555514270636419"><ele>1364.0</ele><time>2026-04-03T06:38:33Z</time></trkpt><trkpt lat="44.1502615395619" lon="3.5553512924615713"><ele>1361.0</ele><time>2026-04-03T06:38:34Z</time></trkpt><trkpt lat="44.15025951323028" lon="3.555143208895341"><ele>1358.0</ele><time>2026-04-03T06:38:35Z</time></trkpt><trkpt lat="44.15026200404706" lon="3.554934095951357"><ele>1355.0</ele><time>2026-04-03T06:38:36Z</time></trkpt><trkpt lat="44.150295982678166" lon="3.5547208702687745"><ele>1355.0</ele><time>2026-04-03T06:38:37Z</time></trkpt><trkpt lat="44.1503484543081" lon="3.5545514221990167"><ele>1355.0</ele><time>2026-04-03T06:38:38Z</time></trkpt><trkpt lat="44.15043985588299" lon="3.55435382936448"><ele>1355.0</ele><time>2026-04-03T06:38:39Z</time></trkpt><trkpt lat="44.15056177590347" lon="3.554221565728936"><ele>1356.0</ele><time>2026-04-03T06:38:40Z</time></trkpt><trkpt lat="44.150697288995616" lon="3.5541315131777513"><ele>1357.0</ele><time>2026-04-03T06:38:41Z</time></trkpt><trkpt lat="44.15083950384598" lon="3.5541015340935935"><ele>1358.0</ele><time>2026-04-03T06:38:42Z</time></trkpt><trkpt lat="44.15098596200722" lon="3.554123423755357"><ele>1359.0</ele><time>2026-04-03T06:38:43Z</time></trkpt><trkpt lat="44.151135090841706" lon="3.5541950639759934"><ele>1359.0</ele><time>2026-04-03T06:38:44Z</time></trkpt><trkpt lat="44.1512915825497" lon="3.5542789639716537"><ele>1359.0</ele><time>2026-04-03T06:38:45Z</time></trkpt><trkpt lat="44.151452042633665" lon="3.554384847947078"><ele>1359.0</ele><time>2026-04-03T06:38:46Z</time></trkpt><trkpt lat="44.1515845632592" lon="3.5545006948043425"><ele>1357.25</ele><time>2026-04-03T06:38:47Z</time></trkpt><trkpt lat="44.15169456669899" lon="3.554550218906581"><ele>1355.5</ele><time>2026-04-03T06:38:48Z</time></trkpt><trkpt lat="44.15180366654012" lon="3.554578361177086"><ele>1353.75</ele><time>2026-04-03T06:38:49Z</time></trkpt><trkpt lat="44.15192300412475" lon="3.5545075969443167"><ele>1352.0</ele><time>2026-04-03T06:38:50Z</time></trkpt><trkpt lat="44.152021663537695" lon="3.554362126261487"><ele>1352.0</ele><time>2026-04-03T06:38:51Z</time></trkpt><trkpt lat="44.15208170709305" lon="3.5541746122837323"><ele>1352.0</ele><time>2026-04-03T06:38:52Z</time></trkpt><trkpt lat="44.15208709778072" lon="3.553983672168148"><ele>1352.0</ele><time>2026-04-03T06:38:53Z</time></trkpt><trkpt lat="44.1520649740965" lon="3.553747984652787"><ele>1347.0</ele><time>2026-04-03T06:38:54Z</time></trkpt><trkpt lat="44.15203753405109" lon="3.553471875572392"><ele>1342.0</ele><time>2026-04-03T06:38:55Z</time></trkpt><trkpt lat="44.152016428784975" lon="3.553189162098727"><ele>1337.0</ele><time>2026-04-03T06:38:56Z</time></trkpt><trkpt lat="44.15199782846517" lon="3.552919395176188"><ele>1336.3333333333335</ele><time>2026-04-03T06:38:57Z</time></trkpt><trkpt lat="44.15196021979184" lon="3.5526780039250543"><ele>1335.6666666666667</ele><time>2026-04-03T06:38:58Z</time></trkpt><trkpt lat="44.15188333087449" lon="3.55244152879931"><ele>1335.0</ele><time>2026-04-03T06:38:59Z</time></trkpt><trkpt lat="44.1517416352449" lon="3.5522170217148195"><ele>1337.6666666666667</ele><time>2026-04-03T06:39:00Z</time></trkpt><trkpt lat="44.151601100670476" lon="3.551982752423393"><ele>1340.3333333333335</ele><time>2026-04-03T06:39:01Z</time></trkpt><trkpt lat="44.15148588227096" lon="3.551765967987267"><ele>1343.0</ele><time>2026-04-03T06:39:02Z</time></trkpt><trkpt lat="44.15142466923404" lon="3.5515448294031513"><ele>1332.0</ele><time>2026-04-03T06:39:03Z</time></trkpt><trkpt lat="44.15140359118938" lon="3.551322310416095"><ele>1321.0</ele><time>2026-04-03T06:39:04Z</time></trkpt><trkpt lat="44.151408985174875" lon="3.5510843360841897"><ele>1310.0</ele><time>2026-04-03T06:39:05Z</time></trkpt><trkpt lat="44.151446676020576" lon="3.5508412134520784"><ele>1308.6666666666667</ele><time>2026-04-03T06:39:06Z</time></trkpt><trkpt lat="44.15151807395874" lon="3.5505923206542565"><ele>1307.3333333333333</ele><time>2026-04-03T06:39:07Z</time></trkpt><trkpt lat="44.1516112671389" lon="3.550328414487664"><ele>1306.0</ele><time>2026-04-03T06:39:08Z</time></trkpt><trkpt lat="44.151718627877166" lon="3.5500732082918165"><ele>1305.0</ele><time>2026-04-03T06:39:09Z</time></trkpt><trkpt lat="44.15183958558959" lon="3.549826021651269"><ele>1304.0</ele><time>2026-04-03T06:39:10Z</time></trkpt><trkpt lat="44.151961621525224" lon="3.549613309636064"><ele>1303.0</ele><time>2026-04-03T06:39:11Z</time></trkpt><trkpt lat="44.15209852671454" lon="3.5494226323002365"><ele>1303.0</ele><time>2026-04-03T06:39:12Z</time></trkpt><trkpt lat="44.15226851958954" lon="3.5492560701433806"><ele>1303.0</ele><time>2026-04-03T06:39:13Z</time></trkpt><trkpt lat="44.1524578209926" lon="3.549102443605631"><ele>1303.0</ele><time>2026-04-03T06:39:14Z</time></trkpt><trkpt lat="44.15265859867618" lon="3.5489502575021312"><ele>1300.6666666666665</ele><time>2026-04-03T06:39:15Z</time></trkpt><trkpt lat="44.152845132104744" lon="3.548817016736799"><ele>1298.3333333333333</ele><time>2026-04-03T06:39:16Z</time></trkpt><trkpt lat="44.15302248384869" lon="3.5487275443363395"><ele>1296.0</ele><time>2026-04-03T06:39:17Z</time></trkpt><trkpt lat="44.15319217359179" lon="3.5486867556421546"><ele>1298.0</ele><time>2026-04-03T06:39:18Z</time></trkpt><trkpt lat="44.15335714532652" lon="3.548704054051093"><ele>1300.0</ele><time>2026-04-03T06:39:19Z</time></trkpt><trkpt lat="44.15355673062397" lon="3.5487445034683227"><ele>1302.0</ele><time>2026-04-03T06:39:20Z</time></trkpt><trkpt lat="44.15377356473556" lon="3.5487725629425197"><ele>1309.3333333333333</ele><time>2026-04-03T06:39:21Z</time></trkpt><trkpt lat="44.153984943872" lon="3.548790703137683"><ele>1316.6666666666665</ele><time>2026-04-03T06:39:22Z</time></trkpt><trkpt lat="44.1541719006474" lon="3.5487964217056485"><ele>1324.0</ele><time>2026-04-03T06:39:23Z</time></trkpt><trkpt lat="44.15433569628088" lon="3.548804869034854"><ele>1324.0</ele><time>2026-04-03T06:39:24Z</time></trkpt><trkpt lat="44.154473655133415" lon="3.5488304983257537"><ele>1324.0</ele><time>2026-04-03T06:39:25Z</time></trkpt><trkpt lat="44.154596852348185" lon="3.5488351419950086"><ele>1324.0</ele><time>2026-04-03T06:39:26Z</time></trkpt><trkpt lat="44.15469838388956" lon="3.548429051780565"><ele>1318.6666666666665</ele><time>2026-04-03T06:39:27Z</time></trkpt><trkpt lat="44.15479330355635" lon="3.548225704953507"><ele>1313.3333333333333</ele><time>2026-04-03T06:39:28Z</time></trkpt><trkpt lat="44.15494040423694" lon="3.548068586248204"><ele>1308.0</ele><time>2026-04-03T06:39:29Z</time></trkpt><trkpt lat="44.155141424414985" lon="3.547951825818675"><ele>1298.5</ele><time>2026-04-03T06:39:30Z</time></trkpt><trkpt lat="44.15536848998223" lon="3.5478555895396835"><ele>1289.0</ele><time>2026-04-03T06:39:31Z</time></trkpt><trkpt lat="44.15558543439857" lon="3.5477760327454972"><ele>1291.3333333333335</ele><time>2026-04-03T06:39:32Z</time></trkpt><trkpt lat="44.155783457215264" lon="3.5476614460422335"><ele>1293.6666666666667</ele><time>2026-04-03T06:39:33Z</time></trkpt><trkpt lat="44.15596134389644" lon="3.5474649604628974"><ele>1296.0</ele><time>2026-04-03T06:39:34Z</time></trkpt><trkpt lat="44.15611210273074" lon="3.5472039900220707"><ele>1285.5</ele><time>2026-04-03T06:39:35Z</time></trkpt><trkpt lat="44.15622546221246" lon="3.546911928382868"><ele>1275.0</ele><time>2026-04-03T06:39:36Z</time></trkpt><trkpt lat="44.15631863929281" lon="3.546625070226692"><ele>1275.0</ele><time>2026-04-03T06:39:37Z</time></trkpt><trkpt lat="44.15641149549357" lon="3.546376693333641"><ele>1275.0</ele><time>2026-04-03T06:39:38Z</time></trkpt><trkpt lat="44.15652633636523" lon="3.546156388450507"><ele>1275.0</ele><time>2026-04-03T06:39:39Z</time></trkpt><trkpt lat="44.15665237787842" lon="3.5459613325391923"><ele>1276.3333333333333</ele><time>2026-04-03T06:39:40Z</time></trkpt><trkpt lat="44.156794618584534" lon="3.5457845864324495"><ele>1277.6666666666665</ele><time>2026-04-03T06:39:41Z</time></trkpt><trkpt lat="44.156937157546395" lon="3.5456143800959943"><ele>1279.0</ele><time>2026-04-03T06:39:42Z</time></trkpt><trkpt lat="44.15710183810935" lon="3.545471267017773"><ele>1274.6666666666665</ele><time>2026-04-03T06:39:43Z</time></trkpt><trkpt lat="44.15727999490378" lon="3.5453754178947325"><ele>1270.3333333333333</ele><time>2026-04-03T06:39:44Z</time></trkpt><trkpt lat="44.15748773488931" lon="3.545294753989259"><ele>1266.0</ele><time>2026-04-03T06:39:45Z</time></trkpt><trkpt lat="44.15770563316109" lon="3.545199055126451"><ele>1266.0</ele><time>2026-04-03T06:39:46Z</time></trkpt><trkpt lat="44.15792422851288" lon="3.5451030246559014"><ele>1266.0</ele><time>2026-04-03T06:39:47Z</time></trkpt><trkpt lat="44.15815438033204" lon="3.5450146024347298"><ele>1267.6666666666667</ele><time>2026-04-03T06:39:48Z</time></trkpt><trkpt lat="44.15838429546101" lon="3.544942019539987"><ele>1269.3333333333335</ele><time>2026-04-03T06:39:49Z</time></trkpt><trkpt lat="44.15858821119383" lon="3.5448855935485697"><ele>1271.0</ele><time>2026-04-03T06:39:50Z</time></trkpt><trkpt lat="44.158799589593684" lon="3.5448724122360376"><ele>1271.0</ele><time>2026-04-03T06:39:51Z</time></trkpt><trkpt lat="44.15902771117151" lon="3.5449131895868016"><ele>1271.0</ele><time>2026-04-03T06:39:52Z</time></trkpt><trkpt lat="44.1592636520217" lon="3.5449772001549062"><ele>1269.5</ele><time>2026-04-03T06:39:53Z</time></trkpt><trkpt lat="44.15951583385053" lon="3.5449917832687676"><ele>1268.0</ele><time>2026-04-03T06:39:54Z</time></trkpt><trkpt lat="44.15975202144843" lon="3.544943022307253"><ele>1265.6666666666667</ele><time>2026-04-03T06:39:55Z</time></trkpt><trkpt lat="44.159960007001644" lon="3.5448782685949904"><ele>1263.3333333333333</ele><time>2026-04-03T06:39:56Z</time></trkpt><trkpt lat="44.16014851352096" lon="3.5448387582897856"><ele>1261.0</ele><time>2026-04-03T06:39:57Z</time></trkpt><trkpt lat="44.16033736954622" lon="3.544828578843961"><ele>1261.0</ele><time>2026-04-03T06:39:58Z</time></trkpt><trkpt lat="44.16051428772718" lon="3.5448738336546985"><ele>1261.0</ele><time>2026-04-03T06:39:59Z</time></trkpt><trkpt lat="44.16069923969804" lon="3.544985030019768"><ele>1261.0</ele><time>2026-04-03T06:40:00Z</time></trkpt><trkpt lat="44.16083864537048" lon="3.545136480331542"><ele>1258.6666666666665</ele><time>2026-04-03T06:40:01Z</time></trkpt><trkpt lat="44.160934166379924" lon="3.5453121808341663"><ele>1256.3333333333333</ele><time>2026-04-03T06:40:02Z</time></trkpt><trkpt lat="44.16099022248421" lon="3.545527871430575"><ele>1254.0</ele><time>2026-04-03T06:40:03Z</time></trkpt><trkpt lat="44.16099200344063" lon="3.5457897682840147"><ele>1254.0</ele><time>2026-04-03T06:40:04Z</time></trkpt><trkpt lat="44.16095442009369" lon="3.5460689838879893"><ele>1254.0</ele><time>2026-04-03T06:40:05Z</time></trkpt><trkpt lat="44.16089090777596" lon="3.5463640283716997"><ele>1254.0</ele><time>2026-04-03T06:40:06Z</time></trkpt><trkpt lat="44.16082703902291" lon="3.54669100994146"><ele>1251.0</ele><time>2026-04-03T06:40:07Z</time></trkpt><trkpt lat="44.16076285679543" lon="3.5470304453326844"><ele>1248.0</ele><time>2026-04-03T06:40:08Z</time></trkpt><trkpt lat="44.16071918569709" lon="3.547363609545933"><ele>1264.0</ele><time>2026-04-03T06:40:09Z</time></trkpt><trkpt lat="44.16069912390299" lon="3.547702211205566"><ele>1280.0</ele><time>2026-04-03T06:40:10Z</time></trkpt><trkpt lat="44.16068965991001" lon="3.5480483124317717"><ele>1280.0</ele><time>2026-04-03T06:40:11Z</time></trkpt><trkpt lat="44.160696199146116" lon="3.5483919064782943"><ele>1280.0</ele><time>2026-04-03T06:40:12Z</time></trkpt><trkpt lat="44.1607419654558" lon="3.5487154669436234"><ele>1267.6666666666667</ele><time>2026-04-03T06:40:13Z</time></trkpt><trkpt lat="44.160812642101824" lon="3.54898270399649"><ele>1255.3333333333333</ele><time>2026-04-03T06:40:14Z</time></trkpt><trkpt lat="44.16089035420059" lon="3.549167820696555"><ele>1243.0</ele><time>2026-04-03T06:40:15Z</time></trkpt><trkpt lat="44.16098600900849" lon="3.549309085442256"><ele>1243.0</ele><time>2026-04-03T06:40:16Z</time></trkpt><trkpt lat="44.16110535187853" lon="3.5494060861234136"><ele>1243.0</ele><time>2026-04-03T06:40:17Z</time></trkpt><trkpt lat="44.16125758156089" lon="3.5494234502441655"><ele>1243.0</ele><time>2026-04-03T06:40:18Z</time></trkpt><trkpt lat="44.16142691653801" lon="3.549356071611803"><ele>1237.3333333333333</ele><time>2026-04-03T06:40:19Z</time></trkpt><trkpt lat="44.161616790519545" lon="3.5492611797421794"><ele>1231.6666666666667</ele><time>2026-04-03T06:40:20Z</time></trkpt><trkpt lat="44.16182162803596" lon="3.549201380956161"><ele>1226.0</ele><time>2026-04-03T06:40:21Z</time></trkpt><trkpt lat="44.16202221610825" lon="3.5490950484942747"><ele>1226.0</ele><time>2026-04-03T06:40:22Z</time></trkpt><trkpt lat="44.162199515024206" lon="3.548945583062713"><ele>1226.0</ele><time>2026-04-03T06:40:23Z</time></trkpt><trkpt lat="44.16236131590757" lon="3.548800228942806"><ele>1226.0</ele><time>2026-04-03T06:40:24Z</time></trkpt><trkpt lat="44.16251566125277" lon="3.548697888230135"><ele>1218.3333333333335</ele><time>2026-04-03T06:40:25Z</time></trkpt><trkpt lat="44.162655155164124" lon="3.5486452873639966"><ele>1210.6666666666667</ele><time>2026-04-03T06:40:26Z</time></trkpt><trkpt lat="44.16279781246445" lon="3.5486456152405195"><ele>1203.0</ele><time>2026-04-03T06:40:27Z</time></trkpt><trkpt lat="44.16295910691394" lon="3.5486895892117327"><ele>1202.0</ele><time>2026-04-03T06:40:28Z</time></trkpt><trkpt lat="44.163130402135835" lon="3.548747540009366"><ele>1201.0</ele><time>2026-04-03T06:40:29Z</time></trkpt><trkpt lat="44.1633150197071" lon="3.548730762422403"><ele>1200.0</ele><time>2026-04-03T06:40:30Z</time></trkpt><trkpt lat="44.16349497682868" lon="3.5486441471784715"><ele>1200.0</ele><time>2026-04-03T06:40:31Z</time></trkpt><trkpt lat="44.1636456776272" lon="3.54856911992319"><ele>1200.0</ele><time>2026-04-03T06:40:32Z</time></trkpt><trkpt lat="44.163786961347306" lon="3.548556306865562"><ele>1200.0</ele><time>2026-04-03T06:40:33Z</time></trkpt><trkpt lat="44.163924593807565" lon="3.5486064763406695"><ele>1200.0</ele><time>2026-04-03T06:40:34Z</time></trkpt><trkpt lat="44.16403893519681" lon="3.5487376011018203"><ele>1201.3333333333333</ele><time>2026-04-03T06:40:35Z</time></trkpt><trkpt lat="44.164125752214986" lon="3.5489113890117134"><ele>1202.6666666666665</ele><time>2026-04-03T06:40:36Z</time></trkpt><trkpt lat="44.16418844226546" lon="3.5491104418849067"><ele>1204.0</ele><time>2026-04-03T06:40:37Z</time></trkpt><trkpt lat="44.16425131099689" lon="3.5493080155569587"><ele>1204.0</ele><time>2026-04-03T06:40:38Z</time></trkpt><trkpt lat="44.1643183758541" lon="3.549484928377794"><ele>1204.0</ele><time>2026-04-03T06:40:39Z</time></trkpt><trkpt lat="44.164376073608786" lon="3.549635522396556"><ele>1204.0</ele><time>2026-04-03T06:40:40Z</time></trkpt><trkpt lat="44.16439600980388" lon="3.5497438288109833"><ele>1204.0</ele><time>2026-04-03T06:40:41Z</time></trkpt><trkpt lat="44.16438175235312" lon="3.549856216293912"><ele>1204.0</ele><time>2026-04-03T06:40:42Z</time></trkpt><trkpt lat="44.16433717574697" lon="3.549990430108785"><ele>1204.0</ele><time>2026-04-03T06:40:43Z</time></trkpt><trkpt lat="44.164265986768314" lon="3.550148887308117"><ele>1204.0</ele><time>2026-04-03T06:40:44Z</time></trkpt><trkpt lat="44.16417968829504" lon="3.550338043188547"><ele>1204.0</ele><time>2026-04-03T06:40:45Z</time></trkpt><trkpt lat="44.16409176074427" lon="3.5505613688838222"><ele>1207.0</ele><time>2026-04-03T06:40:46Z</time></trkpt><trkpt lat="44.16401348659349" lon="3.550788454144805"><ele>1210.0</ele><time>2026-04-03T06:40:47Z</time></trkpt><trkpt lat="44.16391772917471" lon="3.5509943085397238"><ele>1213.0</ele><time>2026-04-03T06:40:48Z</time></trkpt><trkpt lat="44.16380942014214" lon="3.5511820862320023"><ele>1210.3333333333333</ele><time>2026-04-03T06:40:49Z</time></trkpt><trkpt lat="44.16371087762161" lon="3.5513654817612212"><ele>1207.6666666666667</ele><time>2026-04-03T06:40:50Z</time></trkpt><trkpt lat="44.1636477822038" lon="3.551575653774612"><ele>1205.0</ele><time>2026-04-03T06:40:51Z</time></trkpt><trkpt lat="44.163632031429174" lon="3.551784998189113"><ele>1205.0</ele><time>2026-04-03T06:40:52Z</time></trkpt><trkpt lat="44.16365836413033" lon="3.5520076876989513"><ele>1205.0</ele><time>2026-04-03T06:40:53Z</time></trkpt><trkpt lat="44.16370297195789" lon="3.552222695632607"><ele>1205.0</ele><time>2026-04-03T06:40:54Z</time></trkpt><trkpt lat="44.163744237554496" lon="3.5524131358149975"><ele>1203.25</ele><time>2026-04-03T06:40:55Z</time></trkpt><trkpt lat="44.16374971014791" lon="3.5525822497343644"><ele>1201.5</ele><time>2026-04-03T06:40:56Z</time></trkpt><trkpt lat="44.16369295863917" lon="3.5527286806676375"><ele>1199.75</ele><time>2026-04-03T06:40:57Z</time></trkpt><trkpt lat="44.16358616604557" lon="3.5528655993767075"><ele>1198.0</ele><time>2026-04-03T06:40:58Z</time></trkpt><trkpt lat="44.16346034784359" lon="3.5530073541639826"><ele>1196.0</ele><time>2026-04-03T06:40:59Z</time></trkpt><trkpt lat="44.1633613455783" lon="3.553192828553147"><ele>1194.0</ele><time>2026-04-03T06:41:00Z</time></trkpt><trkpt lat="44.16329862682151" lon="3.5534537989077157"><ele>1192.0</ele><time>2026-04-03T06:41:01Z</time></trkpt><trkpt lat="44.16324974867461" lon="3.5537493864166234"><ele>1193.3333333333333</ele><time>2026-04-03T06:41:02Z</time></trkpt><trkpt lat="44.1631735962162" lon="3.554045744687844"><ele>1194.6666666666667</ele><time>2026-04-03T06:41:03Z</time></trkpt><trkpt lat="44.16308109872609" lon="3.5543082372956785"><ele>1196.0</ele><time>2026-04-03T06:41:04Z</time></trkpt><trkpt lat="44.16298305842304" lon="3.554538113447056"><ele>1196.0</ele><time>2026-04-03T06:41:05Z</time></trkpt><trkpt lat="44.16285592998015" lon="3.5547531761855984"><ele>1196.0</ele><time>2026-04-03T06:41:06Z</time></trkpt><trkpt lat="44.162718207979054" lon="3.554984664497195"><ele>1196.0</ele><time>2026-04-03T06:41:07Z</time></trkpt><trkpt lat="44.162623111847616" lon="3.555260729239511"><ele>1192.3333333333335</ele><time>2026-04-03T06:41:08Z</time></trkpt><trkpt lat="44.1625682787328" lon="3.555565117134321"><ele>1188.6666666666667</ele><time>2026-04-03T06:41:09Z</time></trkpt><trkpt lat="44.16246856404379" lon="3.555825805444758"><ele>1185.0</ele><time>2026-04-03T06:41:10Z</time></trkpt><trkpt lat="44.16235937400849" lon="3.5560822744603415"><ele>1188.6666666666667</ele><time>2026-04-03T06:41:11Z</time></trkpt><trkpt lat="44.16224395442998" lon="3.5563396402008136"><ele>1192.3333333333335</ele><time>2026-04-03T06:41:12Z</time></trkpt><trkpt lat="44.162144739439924" lon="3.556607127476677"><ele>1196.0</ele><time>2026-04-03T06:41:13Z</time></trkpt><trkpt lat="44.1620130600178" lon="3.556833011209924"><ele>1191.0</ele><time>2026-04-03T06:41:14Z</time></trkpt><trkpt lat="44.16187661036405" lon="3.5570398732393316"><ele>1186.0</ele><time>2026-04-03T06:41:15Z</time></trkpt><trkpt lat="44.16176154404824" lon="3.5572676438484505"><ele>1181.0</ele><time>2026-04-03T06:41:16Z</time></trkpt><trkpt lat="44.16166432753727" lon="3.5574705829452813"><ele>1181.0</ele><time>2026-04-03T06:41:17Z</time></trkpt><trkpt lat="44.16157299543291" lon="3.5576414199983746"><ele>1181.0</ele><time>2026-04-03T06:41:18Z</time></trkpt><trkpt lat="44.161472600503735" lon="3.5577492662617884"><ele>1181.0</ele><time>2026-04-03T06:41:19Z</time></trkpt><trkpt lat="44.161365210106204" lon="3.5578452907352776"><ele>1181.0</ele><time>2026-04-03T06:41:20Z</time></trkpt><trkpt lat="44.161304553199" lon="3.5579335522816877"><ele>1186.0</ele><time>2026-04-03T06:41:21Z</time></trkpt><trkpt lat="44.1612762809761" lon="3.5580504914133058"><ele>1191.0</ele><time>2026-04-03T06:41:22Z</time></trkpt><trkpt lat="44.161312203977715" lon="3.55817524507567"><ele>1196.0</ele><time>2026-04-03T06:41:23Z</time></trkpt><trkpt lat="44.16136429094259" lon="3.558304023835111"><ele>1201.0</ele><time>2026-04-03T06:41:24Z</time></trkpt><trkpt lat="44.161422899897815" lon="3.5584853277130764"><ele>1206.0</ele><time>2026-04-03T06:41:25Z</time></trkpt><trkpt lat="44.161487604417" lon="3.5586803935566436"><ele>1207.0</ele><time>2026-04-03T06:41:26Z</time></trkpt><trkpt lat="44.16153545644738" lon="3.558858493401656"><ele>1208.0</ele><time>2026-04-03T06:41:27Z</time></trkpt><trkpt lat="44.161542964986836" lon="3.5590018334516533"><ele>1209.0</ele><time>2026-04-03T06:41:28Z</time></trkpt><trkpt lat="44.161506438156465" lon="3.5591361023356027"><ele>1210.0</ele><time>2026-04-03T06:41:29Z</time></trkpt><trkpt lat="44.16144340177568" lon="3.55928698647999"><ele>1210.0</ele><time>2026-04-03T06:41:30Z</time></trkpt><trkpt lat="44.16142638225575" lon="3.559433857860852"><ele>1210.0</ele><time>2026-04-03T06:41:31Z</time></trkpt><trkpt lat="44.16148804588211" lon="3.559561038087643"><ele>1210.0</ele><time>2026-04-03T06:41:32Z</time></trkpt><trkpt lat="44.16157381019058" lon="3.559668876057191"><ele>1210.0</ele><time>2026-04-03T06:41:33Z</time></trkpt><trkpt lat="44.16167111314281" lon="3.559807147440136"><ele>1199.0</ele><time>2026-04-03T06:41:34Z</time></trkpt><trkpt lat="44.161726721302" lon="3.5600113969472784"><ele>1188.0</ele><time>2026-04-03T06:41:35Z</time></trkpt><trkpt lat="44.1617830211143" lon="3.560262626164136"><ele>1177.0</ele><time>2026-04-03T06:41:36Z</time></trkpt><trkpt lat="44.16184761678058" lon="3.5605238202800487"><ele>1177.0</ele><time>2026-04-03T06:41:37Z</time></trkpt><trkpt lat="44.161885192687585" lon="3.5607849787121033"><ele>1177.0</ele><time>2026-04-03T06:41:38Z</time></trkpt><trkpt lat="44.16188210046578" lon="3.5610385281967916"><ele>1177.0</ele><time>2026-04-03T06:41:39Z</time></trkpt><trkpt lat="44.16188246388379" lon="3.5612966636022567"><ele>1176.6666666666665</ele><time>2026-04-03T06:41:40Z</time></trkpt><trkpt lat="44.161901349081155" lon="3.561537723582497"><ele>1176.3333333333333</ele><time>2026-04-03T06:41:41Z</time></trkpt><trkpt lat="44.16194268972393" lon="3.5617690323039874"><ele>1176.0</ele><time>2026-04-03T06:41:42Z</time></trkpt><trkpt lat="44.162027710492964" lon="3.562004919195306"><ele>1176.3333333333333</ele><time>2026-04-03T06:41:43Z</time></trkpt><trkpt lat="44.162137029324086" lon="3.5622657371390374"><ele>1176.6666666666665</ele><time>2026-04-03T06:41:44Z</time></trkpt><trkpt lat="44.16219352120582" lon="3.562550985368838"><ele>1177.0</ele><time>2026-04-03T06:41:45Z</time></trkpt><trkpt lat="44.162256985716304" lon="3.562840217479821"><ele>1177.0</ele><time>2026-04-03T06:41:46Z</time></trkpt><trkpt lat="44.162285527511266" lon="3.5631330642890746"><ele>1177.0</ele><time>2026-04-03T06:41:47Z</time></trkpt><trkpt lat="44.16230353453197" lon="3.563417324492913"><ele>1177.0</ele><time>2026-04-03T06:41:48Z</time></trkpt><trkpt lat="44.162324066292555" lon="3.5636729655548627"><ele>1175.5</ele><time>2026-04-03T06:41:49Z</time></trkpt><trkpt lat="44.162339352290225" lon="3.5638821361441457"><ele>1174.0</ele><time>2026-04-03T06:41:50Z</time></trkpt><trkpt lat="44.16234359073898" lon="3.5640556926506615"><ele>1172.5</ele><time>2026-04-03T06:41:51Z</time></trkpt><trkpt lat="44.162321419700504" lon="3.564216252877515"><ele>1171.0</ele><time>2026-04-03T06:41:52Z</time></trkpt><trkpt lat="44.16223082308176" lon="3.5643476417728595"><ele>1171.0</ele><time>2026-04-03T06:41:53Z</time></trkpt><trkpt lat="44.162127793781444" lon="3.5645088607710997"><ele>1171.0</ele><time>2026-04-03T06:41:54Z</time></trkpt><trkpt lat="44.161991488369374" lon="3.564651929673579"><ele>1171.0</ele><time>2026-04-03T06:41:55Z</time></trkpt><trkpt lat="44.161839139740685" lon="3.564748140311586"><ele>1172.0</ele><time>2026-04-03T06:41:56Z</time></trkpt><trkpt lat="44.16167827960894" lon="3.5648403291464166"><ele>1173.0</ele><time>2026-04-03T06:41:57Z</time></trkpt><trkpt lat="44.16152915800796" lon="3.564962973210458"><ele>1174.0</ele><time>2026-04-03T06:41:58Z</time></trkpt><trkpt lat="44.16138231711691" lon="3.565105152657758"><ele>1174.0</ele><time>2026-04-03T06:41:59Z</time></trkpt><trkpt lat="44.161254960009074" lon="3.565325411973654"><ele>1174.0</ele><time>2026-04-03T06:42:00Z</time></trkpt><trkpt lat="44.16113473915997" lon="3.565594038507628"><ele>1174.0</ele><time>2026-04-03T06:42:01Z</time></trkpt><trkpt lat="44.160984433693194" lon="3.5658564442810774"><ele>1169.0</ele><time>2026-04-03T06:42:02Z</time></trkpt><trkpt lat="44.1608388070616" lon="3.5661302739412495"><ele>1164.0</ele><time>2026-04-03T06:42:03Z</time></trkpt><trkpt lat="44.16070646016257" lon="3.5664150953561946"><ele>1166.5</ele><time>2026-04-03T06:42:04Z</time></trkpt><trkpt lat="44.16056757030055" lon="3.5666841597148"><ele>1169.0</ele><time>2026-04-03T06:42:05Z</time></trkpt><trkpt lat="44.160437060557776" lon="3.566926680751325"><ele>1165.5</ele><time>2026-04-03T06:42:06Z</time></trkpt><trkpt lat="44.160335598172196" lon="3.567100272867467"><ele>1162.0</ele><time>2026-04-03T06:42:07Z</time></trkpt><trkpt lat="44.160243919441605" lon="3.567180894749222"><ele>1158.5</ele><time>2026-04-03T06:42:08Z</time></trkpt><trkpt lat="44.16014718143024" lon="3.5672193824620315"><ele>1155.0</ele><time>2026-04-03T06:42:09Z</time></trkpt><trkpt lat="44.16002923733711" lon="3.5672342136325357"><ele>1155.0</ele><time>2026-04-03T06:42:10Z</time></trkpt><trkpt lat="44.15992011638053" lon="3.5672724599387093"><ele>1155.0</ele><time>2026-04-03T06:42:11Z</time></trkpt><trkpt lat="44.15983807629323" lon="3.5673428763459656"><ele>1155.0</ele><time>2026-04-03T06:42:12Z</time></trkpt><trkpt lat="44.15980416138576" lon="3.5674460746576524"><ele>1155.0</ele><time>2026-04-03T06:42:13Z</time></trkpt><trkpt lat="44.159816554480095" lon="3.567610638259586"><ele>1155.0</ele><time>2026-04-03T06:42:14Z</time></trkpt><trkpt lat="44.15985025551429" lon="3.5677911325202882"><ele>1159.75</ele><time>2026-04-03T06:42:15Z</time></trkpt><trkpt lat="44.1598585025483" lon="3.5679899794863954"><ele>1164.5</ele><time>2026-04-03T06:42:16Z</time></trkpt><trkpt lat="44.15986002654174" lon="3.568196416654561"><ele>1169.25</ele><time>2026-04-03T06:42:17Z</time></trkpt><trkpt lat="44.15982834588889" lon="3.5684042857932687"><ele>1174.0</ele><time>2026-04-03T06:42:18Z</time></trkpt><trkpt lat="44.15979613447981" lon="3.5686113808316935"><ele>1170.3333333333333</ele><time>2026-04-03T06:42:19Z</time></trkpt><trkpt lat="44.159747990735234" lon="3.5688184610466913"><ele>1166.6666666666667</ele><time>2026-04-03T06:42:20Z</time></trkpt><trkpt lat="44.15970363211594" lon="3.569027413349019"><ele>1163.0</ele><time>2026-04-03T06:42:21Z</time></trkpt><trkpt lat="44.1596217301584" lon="3.5691997384061884"><ele>1163.0</ele><time>2026-04-03T06:42:22Z</time></trkpt><trkpt lat="44.15954376358587" lon="3.56934953655249"><ele>1163.0</ele><time>2026-04-03T06:42:23Z</time></trkpt><trkpt lat="44.15946872532815" lon="3.5694906047327906"><ele>1163.0</ele><time>2026-04-03T06:42:24Z</time></trkpt><trkpt lat="44.15942878160631" lon="3.5696227393958733"><ele>1163.0</ele><time>2026-04-03T06:42:25Z</time></trkpt><trkpt lat="44.15945082435483" lon="3.5697681371447145"><ele>1162.5</ele><time>2026-04-03T06:42:26Z</time></trkpt><trkpt lat="44.159520858667165" lon="3.5698952300782643"><ele>1162.0</ele><time>2026-04-03T06:42:27Z</time></trkpt><trkpt lat="44.15959081649751" lon="3.5700650737952477"><ele>1161.5</ele><time>2026-04-03T06:42:28Z</time></trkpt><trkpt lat="44.15964908056401" lon="3.570266485091989"><ele>1161.0</ele><time>2026-04-03T06:42:29Z</time></trkpt><trkpt lat="44.15967959641571" lon="3.5704721271220707"><ele>1160.0</ele><time>2026-04-03T06:42:30Z</time></trkpt><trkpt lat="44.159673690127796" lon="3.5706880930342484"><ele>1159.0</ele><time>2026-04-03T06:42:31Z</time></trkpt><trkpt lat="44.159692124464655" lon="3.570907667238281"><ele>1158.0</ele><time>2026-04-03T06:42:32Z</time></trkpt><trkpt lat="44.15967968452567" lon="3.5711242235039276"><ele>1155.25</ele><time>2026-04-03T06:42:33Z</time></trkpt><trkpt lat="44.15964398685884" lon="3.571332499881113"><ele>1152.5</ele><time>2026-04-03T06:42:34Z</time></trkpt><trkpt lat="44.1595927782375" lon="3.57151955878963"><ele>1149.75</ele><time>2026-04-03T06:42:35Z</time></trkpt><trkpt lat="44.15954003415108" lon="3.57171030408827"><ele>1147.0</ele><time>2026-04-03T06:42:36Z</time></trkpt><trkpt lat="44.15945497647389" lon="3.571898156532757"><ele>1143.0</ele><time>2026-04-03T06:42:37Z</time></trkpt><trkpt lat="44.15936038607719" lon="3.572077062173966"><ele>1139.0</ele><time>2026-04-03T06:42:38Z</time></trkpt><trkpt lat="44.159239589824196" lon="3.5722137024602905"><ele>1135.0</ele><time>2026-04-03T06:42:39Z</time></trkpt><trkpt lat="44.15911909789267" lon="3.572320196328585"><ele>1136.25</ele><time>2026-04-03T06:42:40Z</time></trkpt><trkpt lat="44.15899372597441" lon="3.5724056873994656"><ele>1137.5</ele><time>2026-04-03T06:42:41Z</time></trkpt><trkpt lat="44.158879452437276" lon="3.572446527855664"><ele>1138.75</ele><time>2026-04-03T06:42:42Z</time></trkpt><trkpt lat="44.15876687174672" lon="3.5724692819135653"><ele>1140.0</ele><time>2026-04-03T06:42:43Z</time></trkpt><trkpt lat="44.15863541879223" lon="3.5723872778950456"><ele>1140.0</ele><time>2026-04-03T06:42:44Z</time></trkpt><trkpt lat="44.15848367229658" lon="3.57232252988858"><ele>1140.0</ele><time>2026-04-03T06:42:45Z</time></trkpt><trkpt lat="44.15832768586429" lon="3.5722952789750004"><ele>1140.0</ele><time>2026-04-03T06:42:46Z</time></trkpt><trkpt lat="44.158189635510304" lon="3.5722680126225455"><ele>1143.2</ele><time>2026-04-03T06:42:47Z</time></trkpt><trkpt lat="44.158071059657786" lon="3.5722637315000796"><ele>1146.4</ele><time>2026-04-03T06:42:48Z</time></trkpt><trkpt lat="44.15798989822761" lon="3.5722937373083083"><ele>1149.6</ele><time>2026-04-03T06:42:49Z</time></trkpt><trkpt lat="44.15792437656229" lon="3.5723614698289134"><ele>1152.8</ele><time>2026-04-03T06:42:50Z</time></trkpt><trkpt lat="44.15788114385237" lon="3.5724692716445867"><ele>1156.0</ele><time>2026-04-03T06:42:51Z</time></trkpt><trkpt lat="44.15788444015002" lon="3.57263166096455"><ele>1156.0</ele><time>2026-04-03T06:42:52Z</time></trkpt><trkpt lat="44.15786776386099" lon="3.5728080428658173"><ele>1156.0</ele><time>2026-04-03T06:42:53Z</time></trkpt><trkpt lat="44.1578093049916" lon="3.5729922369261646"><ele>1156.0</ele><time>2026-04-03T06:42:54Z</time></trkpt><trkpt lat="44.157746263845034" lon="3.5731688110868993"><ele>1156.0</ele><time>2026-04-03T06:42:55Z</time></trkpt><trkpt lat="44.15766137987176" lon="3.5733423530942052"><ele>1151.0</ele><time>2026-04-03T06:42:56Z</time></trkpt><trkpt lat="44.15755658147203" lon="3.573507268317984"><ele>1146.0</ele><time>2026-04-03T06:42:57Z</time></trkpt><trkpt lat="44.15743651367842" lon="3.573648467773638"><ele>1141.0</ele><time>2026-04-03T06:42:58Z</time></trkpt><trkpt lat="44.15730153167018" lon="3.5737724763911305"><ele>1137.3333333333333</ele><time>2026-04-03T06:42:59Z</time></trkpt><trkpt lat="44.1571574651672" lon="3.573876554290861"><ele>1133.6666666666667</ele><time>2026-04-03T06:43:00Z</time></trkpt><trkpt lat="44.15699894351574" lon="3.573946314122254"><ele>1130.0</ele><time>2026-04-03T06:43:01Z</time></trkpt><trkpt lat="44.15682906877367" lon="3.5739944687548446"><ele>1130.0</ele><time>2026-04-03T06:43:02Z</time></trkpt><trkpt lat="44.156649277971525" lon="3.5740374113334994"><ele>1130.0</ele><time>2026-04-03T06:43:03Z</time></trkpt><trkpt lat="44.15647662490838" lon="3.5740944498728364"><ele>1130.0</ele><time>2026-04-03T06:43:04Z</time></trkpt><trkpt lat="44.15632560328935" lon="3.574124614901191"><ele>1132.5</ele><time>2026-04-03T06:43:05Z</time></trkpt><trkpt lat="44.15619966622677" lon="3.574149257156135"><ele>1135.0</ele><time>2026-04-03T06:43:06Z</time></trkpt><trkpt lat="44.15609033797846" lon="3.5742128311239187"><ele>1137.5</ele><time>2026-04-03T06:43:07Z</time></trkpt><trkpt lat="44.15600917545851" lon="3.5743500522699763"><ele>1140.0</ele><time>2026-04-03T06:43:08Z</time></trkpt><trkpt lat="44.155941337676204" lon="3.574515567816517"><ele>1135.25</ele><time>2026-04-03T06:43:09Z</time></trkpt><trkpt lat="44.15585665544332" lon="3.574645558523377"><ele>1130.5</ele><time>2026-04-03T06:43:10Z</time></trkpt><trkpt lat="44.15572807386736" lon="3.5746848016063177"><ele>1125.75</ele><time>2026-04-03T06:43:11Z</time></trkpt><trkpt lat="44.1556032020091" lon="3.574711404627576"><ele>1121.0</ele><time>2026-04-03T06:43:12Z</time></trkpt><trkpt lat="44.155480137231784" lon="3.5746957220126583"><ele>1121.0</ele><time>2026-04-03T06:43:13Z</time></trkpt><trkpt lat="44.15536003800517" lon="3.5746501420399457"><ele>1121.0</ele><time>2026-04-03T06:43:14Z</time></trkpt><trkpt lat="44.155241566860724" lon="3.5745796079475043"><ele>1121.0</ele><time>2026-04-03T06:43:15Z</time></trkpt><trkpt lat="44.15515455948834" lon="3.574478208035552"><ele>1121.0</ele><time>2026-04-03T06:43:16Z</time></trkpt><trkpt lat="44.155079279426985" lon="3.5743562344809474"><ele>1121.75</ele><time>2026-04-03T06:43:17Z</time></trkpt><trkpt lat="44.155014222411246" lon="3.5741899467446934"><ele>1122.5</ele><time>2026-04-03T06:43:18Z</time></trkpt><trkpt lat="44.15494510459986" lon="3.5740144805292076"><ele>1123.25</ele><time>2026-04-03T06:43:19Z</time></trkpt><trkpt lat="44.154890721961856" lon="3.573836898431165"><ele>1124.0</ele><time>2026-04-03T06:43:20Z</time></trkpt><trkpt lat="44.15485122075324" lon="3.573695197706178"><ele>1124.0</ele><time>2026-04-03T06:43:21Z</time></trkpt><trkpt lat="44.15479311951294" lon="3.573599452414499"><ele>1124.0</ele><time>2026-04-03T06:43:22Z</time></trkpt><trkpt lat="44.15470237900273" lon="3.5735719648290685"><ele>1124.0</ele><time>2026-04-03T06:43:23Z</time></trkpt><trkpt lat="44.1546061654166" lon="3.5736244553301573"><ele>1124.0</ele><time>2026-04-03T06:43:24Z</time></trkpt><trkpt lat="44.15452286648562" lon="3.5736874899520794"><ele>1124.0</ele><time>2026-04-03T06:43:25Z</time></trkpt><trkpt lat="44.154424341325075" lon="3.5737054294423514"><ele>1125.6000000000001</ele><time>2026-04-03T06:43:26Z</time></trkpt><trkpt lat="44.15433329188954" lon="3.5736774843080243"><ele>1127.2</ele><time>2026-04-03T06:43:27Z</time></trkpt><trkpt lat="44.154258164556104" lon="3.5735939388462854"><ele>1128.8000000000002</ele><time>2026-04-03T06:43:28Z</time></trkpt><trkpt lat="44.154159188234935" lon="3.5735155739624798"><ele>1130.4</ele><time>2026-04-03T06:43:29Z</time></trkpt><trkpt lat="44.15404654051865" lon="3.5734253885696665"><ele>1132.0</ele><time>2026-04-03T06:43:30Z</time></trkpt><trkpt lat="44.15393537339882" lon="3.5733404030230544"><ele>1133.6</ele><time>2026-04-03T06:43:31Z</time></trkpt><trkpt lat="44.15383310567994" lon="3.5732921564998557"><ele>1135.2</ele><time>2026-04-03T06:43:32Z</time></trkpt><trkpt lat="44.15375779627735" lon="3.573236908472237"><ele>1136.8</ele><time>2026-04-03T06:43:33Z</time></trkpt><trkpt lat="44.15368101707678" lon="3.5732471416390292"><ele>1138.4</ele><time>2026-04-03T06:43:34Z</time></trkpt><trkpt lat="44.153630467781774" lon="3.57333131227285"><ele>1140.0</ele><time>2026-04-03T06:43:35Z</time></trkpt><trkpt lat="44.153580446828364" lon="3.5734628648373725"><ele>1140.0</ele><time>2026-04-03T06:43:37Z</time></trkpt><trkpt lat="44.15357090043001" lon="3.573619645072412"><ele>1140.0</ele><time>2026-04-03T06:43:39Z</time></trkpt><trkpt lat="44.15365054348531" lon="3.5737552708812848"><ele>1140.0</ele><time>2026-04-03T06:43:41Z</time></trkpt><trkpt lat="44.15372751367867" lon="3.5738393193102933"><ele>1140.0</ele><time>2026-04-03T06:43:42Z</time></trkpt><trkpt lat="44.15382746750825" lon="3.5739040817097223"><ele>1140.0</ele><time>2026-04-03T06:43:43Z</time></trkpt><trkpt lat="44.15392544463854" lon="3.5739810596319783"><ele>1139.25</ele><time>2026-04-03T06:43:44Z</time></trkpt><trkpt lat="44.15402170331661" lon="3.5740726816297514"><ele>1138.5</ele><time>2026-04-03T06:43:45Z</time></trkpt><trkpt lat="44.1540801503888" lon="3.57419074901819"><ele>1137.75</ele><time>2026-04-03T06:43:46Z</time></trkpt><trkpt lat="44.154098963111" lon="3.5743370908255394"><ele>1137.0</ele><time>2026-04-03T06:43:47Z</time></trkpt><trkpt lat="44.15412381903616" lon="3.5745083716237755"><ele>1133.3333333333333</ele><time>2026-04-03T06:43:48Z</time></trkpt><trkpt lat="44.15415854927372" lon="3.5746980559994945"><ele>1129.6666666666665</ele><time>2026-04-03T06:43:49Z</time></trkpt><trkpt lat="44.15418340142561" lon="3.574901381632359"><ele>1126.0</ele><time>2026-04-03T06:43:50Z</time></trkpt><trkpt lat="44.15421643523961" lon="3.575146851810418"><ele>1124.3333333333333</ele><time>2026-04-03T06:43:51Z</time></trkpt><trkpt lat="44.154252084701774" lon="3.5754142038603773"><ele>1122.6666666666667</ele><time>2026-04-03T06:43:52Z</time></trkpt><trkpt lat="44.154290473476856" lon="3.575676638054656"><ele>1121.0</ele><time>2026-04-03T06:43:53Z</time></trkpt><trkpt lat="44.15430562822516" lon="3.5759511011236285"><ele>1120.0</ele><time>2026-04-03T06:43:54Z</time></trkpt><trkpt lat="44.15431216300216" lon="3.576247703775053"><ele>1119.0</ele><time>2026-04-03T06:43:55Z</time></trkpt><trkpt lat="44.15432619684564" lon="3.576562826846998"><ele>1118.0</ele><time>2026-04-03T06:43:56Z</time></trkpt><trkpt lat="44.15432552470719" lon="3.576866462512703"><ele>1117.0</ele><time>2026-04-03T06:43:57Z</time></trkpt><trkpt lat="44.154329230909156" lon="3.577144019425201"><ele>1116.0</ele><time>2026-04-03T06:43:58Z</time></trkpt><trkpt lat="44.15432741397607" lon="3.5773834099283572"><ele>1115.0</ele><time>2026-04-03T06:43:59Z</time></trkpt><trkpt lat="44.154328681438955" lon="3.577584834358563"><ele>1115.0</ele><time>2026-04-03T06:44:00Z</time></trkpt><trkpt lat="44.15433514576956" lon="3.577743211357626"><ele>1115.0</ele><time>2026-04-03T06:44:01Z</time></trkpt><trkpt lat="44.154366066655186" lon="3.5778777905249086"><ele>1115.0</ele><time>2026-04-03T06:44:02Z</time></trkpt><trkpt lat="44.15443945577889" lon="3.5779867753740016"><ele>1115.0</ele><time>2026-04-03T06:44:03Z</time></trkpt><trkpt lat="44.154550345079066" lon="3.578048576382833"><ele>1115.0</ele><time>2026-04-03T06:44:04Z</time></trkpt><trkpt lat="44.15467798865341" lon="3.5780765143789006"><ele>1115.0</ele><time>2026-04-03T06:44:05Z</time></trkpt><trkpt lat="44.154789461227686" lon="3.5780540741450504"><ele>1115.0</ele><time>2026-04-03T06:44:06Z</time></trkpt><trkpt lat="44.15488659947454" lon="3.5779638807130394"><ele>1115.0</ele><time>2026-04-03T06:44:07Z</time></trkpt><trkpt lat="44.15501469679297" lon="3.5778392251131574"><ele>1115.0</ele><time>2026-04-03T06:44:08Z</time></trkpt><trkpt lat="44.15516804680933" lon="3.5776986042280456"><ele>1115.0</ele><time>2026-04-03T06:44:09Z</time></trkpt><trkpt lat="44.15532139484346" lon="3.577597408085178"><ele>1115.0</ele><time>2026-04-03T06:44:10Z</time></trkpt><trkpt lat="44.15546933610624" lon="3.5775435614593616"><ele>1115.0</ele><time>2026-04-03T06:44:11Z</time></trkpt><trkpt lat="44.155659474332616" lon="3.57754716912326"><ele>1116.3333333333335</ele><time>2026-04-03T06:44:12Z</time></trkpt><trkpt lat="44.15586046484145" lon="3.5775241040048873"><ele>1117.6666666666667</ele><time>2026-04-03T06:44:13Z</time></trkpt><trkpt lat="44.156071026416974" lon="3.5775286813196865"><ele>1119.0</ele><time>2026-04-03T06:44:14Z</time></trkpt><trkpt lat="44.156283172752815" lon="3.577527780899134"><ele>1119.0</ele><time>2026-04-03T06:44:15Z</time></trkpt><trkpt lat="44.15648630810693" lon="3.577509466162249"><ele>1119.0</ele><time>2026-04-03T06:44:16Z</time></trkpt><trkpt lat="44.15669006856949" lon="3.5774939396301377"><ele>1119.0</ele><time>2026-04-03T06:44:17Z</time></trkpt><trkpt lat="44.156892301992805" lon="3.5774854747310183"><ele>1118.3333333333333</ele><time>2026-04-03T06:44:18Z</time></trkpt><trkpt lat="44.157094092393336" lon="3.5774924778469326"><ele>1117.6666666666665</ele><time>2026-04-03T06:44:19Z</time></trkpt><trkpt lat="44.1572920122387" lon="3.577516891248309"><ele>1117.0</ele><time>2026-04-03T06:44:20Z</time></trkpt><trkpt lat="44.15746535584144" lon="3.577541279484877"><ele>1116.0</ele><time>2026-04-03T06:44:21Z</time></trkpt><trkpt lat="44.15763642998981" lon="3.57758039416869"><ele>1115.0</ele><time>2026-04-03T06:44:22Z</time></trkpt><trkpt lat="44.157823343523624" lon="3.577656767117927"><ele>1114.0</ele><time>2026-04-03T06:44:23Z</time></trkpt><trkpt lat="44.158027756372306" lon="3.577751818627192"><ele>1112.3333333333333</ele><time>2026-04-03T06:44:24Z</time></trkpt><trkpt lat="44.15823016378714" lon="3.577848564285583"><ele>1110.6666666666667</ele><time>2026-04-03T06:44:25Z</time></trkpt><trkpt lat="44.158418381491295" lon="3.577930681244568"><ele>1109.0</ele><time>2026-04-03T06:44:26Z</time></trkpt><trkpt lat="44.15857523931193" lon="3.578007743760785"><ele>1112.75</ele><time>2026-04-03T06:44:27Z</time></trkpt><trkpt lat="44.158702845615295" lon="3.578092055460081"><ele>1116.5</ele><time>2026-04-03T06:44:28Z</time></trkpt><trkpt lat="44.158807440983715" lon="3.57822870677209"><ele>1120.25</ele><time>2026-04-03T06:44:29Z</time></trkpt><trkpt lat="44.158908224553436" lon="3.5783903587552217"><ele>1124.0</ele><time>2026-04-03T06:44:30Z</time></trkpt><trkpt lat="44.1590121510303" lon="3.5785672222726457"><ele>1124.0</ele><time>2026-04-03T06:44:31Z</time></trkpt><trkpt lat="44.159098940985885" lon="3.5787730916881406"><ele>1124.0</ele><time>2026-04-03T06:44:32Z</time></trkpt><trkpt lat="44.15918017153298" lon="3.578982092131954"><ele>1124.0</ele><time>2026-04-03T06:44:33Z</time></trkpt><trkpt lat="44.159256493353496" lon="3.5791894203830537"><ele>1124.0</ele><time>2026-04-03T06:44:34Z</time></trkpt><trkpt lat="44.15934301099609" lon="3.579391964128874"><ele>1124.0</ele><time>2026-04-03T06:44:35Z</time></trkpt><trkpt lat="44.15943471564179" lon="3.5795762104215285"><ele>1124.0</ele><time>2026-04-03T06:44:36Z</time></trkpt><trkpt lat="44.15952017526009" lon="3.579737554716584"><ele>1124.0</ele><time>2026-04-03T06:44:37Z</time></trkpt><trkpt lat="44.15959525275635" lon="3.5798978911367274"><ele>1124.0</ele><time>2026-04-03T06:44:38Z</time></trkpt><trkpt lat="44.159663590589815" lon="3.5800462884528717"><ele>1124.0</ele><time>2026-04-03T06:44:39Z</time></trkpt><trkpt lat="44.159742476647416" lon="3.580168893782737"><ele>1124.0</ele><time>2026-04-03T06:44:40Z</time></trkpt><trkpt lat="44.15983845034462" lon="3.580269808545882"><ele>1121.5</ele><time>2026-04-03T06:44:41Z</time></trkpt><trkpt lat="44.15995082478572" lon="3.5803689258748714"><ele>1119.0</ele><time>2026-04-03T06:44:42Z</time></trkpt><trkpt lat="44.16004429297305" lon="3.5804668966897792"><ele>1116.5</ele><time>2026-04-03T06:44:43Z</time></trkpt><trkpt lat="44.1601389464421" lon="3.5805884937029475"><ele>1114.0</ele><time>2026-04-03T06:44:44Z</time></trkpt><trkpt lat="44.160259405178714" lon="3.5807430934254816"><ele>1114.0</ele><time>2026-04-03T06:44:45Z</time></trkpt><trkpt lat="44.16032651082198" lon="3.5809335735173873"><ele>1114.0</ele><time>2026-04-03T06:44:46Z</time></trkpt><trkpt lat="44.16038535077957" lon="3.5811380586295205"><ele>1114.0</ele><time>2026-04-03T06:44:47Z</time></trkpt><trkpt lat="44.16044518076025" lon="3.5813509015339156"><ele>1109.0</ele><time>2026-04-03T06:44:48Z</time></trkpt><trkpt lat="44.16052071195594" lon="3.5815612761311555"><ele>1104.0</ele><time>2026-04-03T06:44:49Z</time></trkpt><trkpt lat="44.16059526717018" lon="3.581772610448462"><ele>1099.0</ele><time>2026-04-03T06:44:50Z</time></trkpt><trkpt lat="44.160661407408156" lon="3.581986352817991"><ele>1103.6666666666665</ele><time>2026-04-03T06:44:51Z</time></trkpt><trkpt lat="44.16071376595444" lon="3.582209474885469"><ele>1108.3333333333333</ele><time>2026-04-03T06:44:52Z</time></trkpt><trkpt lat="44.160758601154356" lon="3.582432766362317"><ele>1113.0</ele><time>2026-04-03T06:44:53Z</time></trkpt><trkpt lat="44.16079305697889" lon="3.582654160647269"><ele>1108.6666666666667</ele><time>2026-04-03T06:44:54Z</time></trkpt><trkpt lat="44.160844233222825" lon="3.5828733904027477"><ele>1104.3333333333335</ele><time>2026-04-03T06:44:55Z</time></trkpt><trkpt lat="44.16091630819178" lon="3.5830742658249113"><ele>1100.0</ele><time>2026-04-03T06:44:56Z</time></trkpt><trkpt lat="44.160989110254555" lon="3.5832757123122807"><ele>1100.0</ele><time>2026-04-03T06:44:57Z</time></trkpt><trkpt lat="44.161046432829686" lon="3.5834947666074655"><ele>1100.0</ele><time>2026-04-03T06:44:58Z</time></trkpt><trkpt lat="44.161077198820315" lon="3.583712154964561"><ele>1100.0</ele><time>2026-04-03T06:44:59Z</time></trkpt><trkpt lat="44.16108506316417" lon="3.583948191744246"><ele>1097.3333333333335</ele><time>2026-04-03T06:45:00Z</time></trkpt><trkpt lat="44.16109186494672" lon="3.5841817132625855"><ele>1094.6666666666667</ele><time>2026-04-03T06:45:01Z</time></trkpt><trkpt lat="44.16110843654433" lon="3.584422923628153"><ele>1092.0</ele><time>2026-04-03T06:45:02Z</time></trkpt><trkpt lat="44.16113540918878" lon="3.5846567259956"><ele>1089.3333333333333</ele><time>2026-04-03T06:45:03Z</time></trkpt><trkpt lat="44.161161449292855" lon="3.5848854567734225"><ele>1086.6666666666665</ele><time>2026-04-03T06:45:04Z</time></trkpt><trkpt lat="44.16117328140205" lon="3.585112867104976"><ele>1084.0</ele><time>2026-04-03T06:45:05Z</time></trkpt><trkpt lat="44.161151460343405" lon="3.585324782163536"><ele>1081.75</ele><time>2026-04-03T06:45:06Z</time></trkpt><trkpt lat="44.161126453722666" lon="3.58553318976422"><ele>1079.5</ele><time>2026-04-03T06:45:07Z</time></trkpt><trkpt lat="44.1611424833861" lon="3.5857318147495367"><ele>1077.25</ele><time>2026-04-03T06:45:08Z</time></trkpt><trkpt lat="44.161190982989424" lon="3.5859026727283743"><ele>1075.0</ele><time>2026-04-03T06:45:09Z</time></trkpt><trkpt lat="44.16124551837841" lon="3.5860366014158296"><ele>1075.0</ele><time>2026-04-03T06:45:10Z</time></trkpt><trkpt lat="44.161247897749234" lon="3.586159866916"><ele>1075.0</ele><time>2026-04-03T06:45:12Z</time></trkpt><trkpt lat="44.16115584725075" lon="3.586140812187894"><ele>1075.0</ele><time>2026-04-03T06:45:14Z</time></trkpt><trkpt lat="44.16115482990449" lon="3.5860305088165787"><ele>1075.0</ele><time>2026-04-03T06:45:15Z</time></trkpt><trkpt lat="44.161125136009524" lon="3.58592138713558"><ele>1075.0</ele><time>2026-04-03T06:45:16Z</time></trkpt><trkpt lat="44.16109135968506" lon="3.585794181294532"><ele>1075.0</ele><time>2026-04-03T06:45:17Z</time></trkpt><trkpt lat="44.161065126838125" lon="3.585658247971423"><ele>1075.0</ele><time>2026-04-03T06:45:18Z</time></trkpt><trkpt lat="44.161048276691794" lon="3.585547859304733"><ele>1075.0</ele><time>2026-04-03T06:45:19Z</time></trkpt><trkpt lat="44.161020197075885" lon="3.585464092682301"><ele>1075.0</ele><time>2026-04-03T06:45:20Z</time></trkpt><trkpt lat="44.16095062457748" lon="3.585429296547502"><ele>1075.0</ele><time>2026-04-03T06:45:21Z</time></trkpt><trkpt lat="44.160882988840434" lon="3.585523205057984"><ele>1075.0</ele><time>2026-04-03T06:45:22Z</time></trkpt><trkpt lat="44.16087080072374" lon="3.5856230408608543"><ele>1075.0</ele><time>2026-04-03T06:45:23Z</time></trkpt><trkpt lat="44.16089305678523" lon="3.5857384301387687"><ele>1075.0</ele><time>2026-04-03T06:45:24Z</time></trkpt><trkpt lat="44.16091433265029" lon="3.585900367957374"><ele>1075.0</ele><time>2026-04-03T06:45:25Z</time></trkpt><trkpt lat="44.16092830172176" lon="3.586094333065245"><ele>1075.0</ele><time>2026-04-03T06:45:26Z</time></trkpt><trkpt lat="44.16093333881424" lon="3.586279325526454"><ele>1075.0</ele><time>2026-04-03T06:45:27Z</time></trkpt><trkpt lat="44.1609482124272" lon="3.5864461368624334"><ele>1073.0</ele><time>2026-04-03T06:45:28Z</time></trkpt><trkpt lat="44.16098641773758" lon="3.5866281260460626"><ele>1071.0</ele><time>2026-04-03T06:45:29Z</time></trkpt><trkpt lat="44.16104904400902" lon="3.5868244387914356"><ele>1069.0</ele><time>2026-04-03T06:45:30Z</time></trkpt><trkpt lat="44.16109409954021" lon="3.5870444897862184"><ele>1065.0</ele><time>2026-04-03T06:45:31Z</time></trkpt><trkpt lat="44.16112994112317" lon="3.5872856580978225"><ele>1061.0</ele><time>2026-04-03T06:45:32Z</time></trkpt><trkpt lat="44.161174339056316" lon="3.5875212556482987"><ele>1057.0</ele><time>2026-04-03T06:45:33Z</time></trkpt><trkpt lat="44.16122117891296" lon="3.5877523069835116"><ele>1053.3333333333333</ele><time>2026-04-03T06:45:34Z</time></trkpt><trkpt lat="44.161254030393835" lon="3.587976277898926"><ele>1049.6666666666667</ele><time>2026-04-03T06:45:35Z</time></trkpt><trkpt lat="44.16127711977543" lon="3.5881959568309374"><ele>1046.0</ele><time>2026-04-03T06:45:36Z</time></trkpt><trkpt lat="44.16129513581047" lon="3.5883729770671864"><ele>1046.0</ele><time>2026-04-03T06:45:37Z</time></trkpt><trkpt lat="44.161327963536564" lon="3.5885083371841944"><ele>1046.0</ele><time>2026-04-03T06:45:38Z</time></trkpt><trkpt lat="44.161381129072645" lon="3.5886223215048854"><ele>1046.0</ele><time>2026-04-03T06:45:39Z</time></trkpt><trkpt lat="44.16140135505049" lon="3.5887246808893374"><ele>1046.0</ele><time>2026-04-03T06:45:40Z</time></trkpt><trkpt lat="44.161342459512554" lon="3.588829957709158"><ele>1046.0</ele><time>2026-04-03T06:45:41Z</time></trkpt><trkpt lat="44.161276109880255" lon="3.5889136077067425"><ele>1043.75</ele><time>2026-04-03T06:45:42Z</time></trkpt><trkpt lat="44.161245182518314" lon="3.5890375424591663"><ele>1041.5</ele><time>2026-04-03T06:45:43Z</time></trkpt><trkpt lat="44.1612380088697" lon="3.589192327187522"><ele>1039.25</ele><time>2026-04-03T06:45:44Z</time></trkpt><trkpt lat="44.16126117851862" lon="3.5893965166472324"><ele>1037.0</ele><time>2026-04-03T06:45:45Z</time></trkpt><trkpt lat="44.16128525623371" lon="3.589595984200098"><ele>1035.5</ele><time>2026-04-03T06:45:46Z</time></trkpt><trkpt lat="44.16133114829136" lon="3.5897907421843613"><ele>1034.0</ele><time>2026-04-03T06:45:47Z</time></trkpt><trkpt lat="44.16141105706562" lon="3.5899688259194584"><ele>1032.5</ele><time>2026-04-03T06:45:48Z</time></trkpt><trkpt lat="44.161468469059535" lon="3.590146615309286"><ele>1031.0</ele><time>2026-04-03T06:45:49Z</time></trkpt><trkpt lat="44.16145406754817" lon="3.5903530055316724"><ele>1028.25</ele><time>2026-04-03T06:45:50Z</time></trkpt><trkpt lat="44.16149795171136" lon="3.590541310158369"><ele>1025.5</ele><time>2026-04-03T06:45:51Z</time></trkpt><trkpt lat="44.16153572796415" lon="3.590736364387704"><ele>1022.75</ele><time>2026-04-03T06:45:52Z</time></trkpt><trkpt lat="44.16155934962054" lon="3.5909471285838284"><ele>1020.0</ele><time>2026-04-03T06:45:53Z</time></trkpt><trkpt lat="44.16156077485097" lon="3.5911630846450975"><ele>1025.0</ele><time>2026-04-03T06:45:54Z</time></trkpt><trkpt lat="44.16156713517853" lon="3.5913789600733876"><ele>1030.0</ele><time>2026-04-03T06:45:55Z</time></trkpt><trkpt lat="44.161601358121935" lon="3.5915789457023433"><ele>1035.0</ele><time>2026-04-03T06:45:56Z</time></trkpt><trkpt lat="44.16163515743113" lon="3.5917637218767253"><ele>1040.0</ele><time>2026-04-03T06:45:57Z</time></trkpt><trkpt lat="44.16159182433046" lon="3.591982647434447"><ele>1036.6666666666667</ele><time>2026-04-03T06:45:58Z</time></trkpt><trkpt lat="44.16159552764217" lon="3.5922040042719106"><ele>1033.3333333333333</ele><time>2026-04-03T06:45:59Z</time></trkpt><trkpt lat="44.16159320591671" lon="3.5924386735222313"><ele>1030.0</ele><time>2026-04-03T06:46:00Z</time></trkpt><trkpt lat="44.16161419603031" lon="3.5926695722430084"><ele>1026.6666666666665</ele><time>2026-04-03T06:46:01Z</time></trkpt><trkpt lat="44.16164645254926" lon="3.592900194936692"><ele>1023.3333333333333</ele><time>2026-04-03T06:46:02Z</time></trkpt><trkpt lat="44.16167637415917" lon="3.5931290842679795"><ele>1020.0</ele><time>2026-04-03T06:46:03Z</time></trkpt><trkpt lat="44.161706681327175" lon="3.5933658885970634"><ele>1020.0</ele><time>2026-04-03T06:46:04Z</time></trkpt><trkpt lat="44.16173153105168" lon="3.5935961350842267"><ele>1020.0</ele><time>2026-04-03T06:46:05Z</time></trkpt><trkpt lat="44.16175407489658" lon="3.593820085305605"><ele>1020.0</ele><time>2026-04-03T06:46:06Z</time></trkpt><trkpt lat="44.16177713318268" lon="3.59403721159005"><ele>1017.5</ele><time>2026-04-03T06:46:07Z</time></trkpt><trkpt lat="44.16180694943723" lon="3.5942493310428603"><ele>1015.0</ele><time>2026-04-03T06:46:08Z</time></trkpt><trkpt lat="44.16181240541765" lon="3.594455146477698"><ele>1012.5</ele><time>2026-04-03T06:46:09Z</time></trkpt><trkpt lat="44.16180333920059" lon="3.5946570561678426"><ele>1010.0</ele><time>2026-04-03T06:46:10Z</time></trkpt><trkpt lat="44.161772955303235" lon="3.594842156524429"><ele>1010.25</ele><time>2026-04-03T06:46:11Z</time></trkpt><trkpt lat="44.16170335013586" lon="3.594993737919249"><ele>1010.5</ele><time>2026-04-03T06:46:12Z</time></trkpt><trkpt lat="44.16162480433968" lon="3.595159101017259"><ele>1010.75</ele><time>2026-04-03T06:46:13Z</time></trkpt><trkpt lat="44.16157157944353" lon="3.595342601659305"><ele>1011.0</ele><time>2026-04-03T06:46:14Z</time></trkpt><trkpt lat="44.1615295964989" lon="3.595540496960203"><ele>1003.0</ele><time>2026-04-03T06:46:15Z</time></trkpt><trkpt lat="44.16150694071708" lon="3.5957484943688294"><ele>995.0</ele><time>2026-04-03T06:46:16Z</time></trkpt><trkpt lat="44.16149336896977" lon="3.595951159730344"><ele>987.0</ele><time>2026-04-03T06:46:17Z</time></trkpt><trkpt lat="44.16147476915592" lon="3.596144807163786"><ele>979.0</ele><time>2026-04-03T06:46:18Z</time></trkpt><trkpt lat="44.16145422128618" lon="3.5963358142432322"><ele>977.75</ele><time>2026-04-03T06:46:19Z</time></trkpt><trkpt lat="44.16143427820078" lon="3.5965288176443524"><ele>976.5</ele><time>2026-04-03T06:46:20Z</time></trkpt><trkpt lat="44.16141973399787" lon="3.5967245463990802"><ele>975.25</ele><time>2026-04-03T06:46:21Z</time></trkpt><trkpt lat="44.16141430087246" lon="3.596926167091036"><ele>974.0</ele><time>2026-04-03T06:46:22Z</time></trkpt><trkpt lat="44.161429869168316" lon="3.5971407930779304"><ele>972.3333333333334</ele><time>2026-04-03T06:46:23Z</time></trkpt><trkpt lat="44.161460841627" lon="3.59738252076673"><ele>970.6666666666667</ele><time>2026-04-03T06:46:24Z</time></trkpt><trkpt lat="44.161480843088704" lon="3.5976323162922808"><ele>969.0</ele><time>2026-04-03T06:46:25Z</time></trkpt><trkpt lat="44.16148482383925" lon="3.597869257254423"><ele>967.25</ele><time>2026-04-03T06:46:26Z</time></trkpt><trkpt lat="44.16147524557365" lon="3.5980933572897893"><ele>965.5</ele><time>2026-04-03T06:46:27Z</time></trkpt><trkpt lat="44.16146901602388" lon="3.5983012613523675"><ele>963.75</ele><time>2026-04-03T06:46:28Z</time></trkpt><trkpt lat="44.16148090893548" lon="3.5984551001636973"><ele>962.0</ele><time>2026-04-03T06:46:29Z</time></trkpt><trkpt lat="44.16151928431967" lon="3.598568658716007"><ele>964.75</ele><time>2026-04-03T06:46:30Z</time></trkpt><trkpt lat="44.16161100009968" lon="3.5986649397172643"><ele>967.5</ele><time>2026-04-03T06:46:31Z</time></trkpt><trkpt lat="44.16173643277317" lon="3.5987738052922675"><ele>970.25</ele><time>2026-04-03T06:46:32Z</time></trkpt><trkpt lat="44.16185683997471" lon="3.598928773990999"><ele>973.0</ele><time>2026-04-03T06:46:33Z</time></trkpt><trkpt lat="44.16192603815324" lon="3.59914413439613"><ele>973.0</ele><time>2026-04-03T06:46:34Z</time></trkpt><trkpt lat="44.16198831529045" lon="3.599358933687747"><ele>973.0</ele><time>2026-04-03T06:46:35Z</time></trkpt><trkpt lat="44.16202558216926" lon="3.5995862155323457"><ele>973.0</ele><time>2026-04-03T06:46:36Z</time></trkpt><trkpt lat="44.16205747576926" lon="3.5998138251156786"><ele>970.5999999999999</ele><time>2026-04-03T06:46:37Z</time></trkpt><trkpt lat="44.16205998811301" lon="3.6000165247130105"><ele>968.1999999999999</ele><time>2026-04-03T06:46:38Z</time></trkpt><trkpt lat="44.162084641208295" lon="3.6001770192482683"><ele>965.8</ele><time>2026-04-03T06:46:39Z</time></trkpt><trkpt lat="44.162139116190694" lon="3.6002880550077614"><ele>963.4</ele><time>2026-04-03T06:46:40Z</time></trkpt><trkpt lat="44.16217527360599" lon="3.6003900773882442"><ele>961.0</ele><time>2026-04-03T06:46:41Z</time></trkpt><trkpt lat="44.162151249891785" lon="3.6004889011794146"><ele>959.75</ele><time>2026-04-03T06:46:42Z</time></trkpt><trkpt lat="44.16205876977681" lon="3.6005564945179853"><ele>958.5</ele><time>2026-04-03T06:46:43Z</time></trkpt><trkpt lat="44.162005864134876" lon="3.600681960580035"><ele>957.25</ele><time>2026-04-03T06:46:44Z</time></trkpt><trkpt lat="44.16198102957287" lon="3.6008748306902247"><ele>956.0</ele><time>2026-04-03T06:46:45Z</time></trkpt><trkpt lat="44.16198883627565" lon="3.601076753601108"><ele>954.0</ele><time>2026-04-03T06:46:46Z</time></trkpt><trkpt lat="44.162026603379346" lon="3.6012736820478146"><ele>952.0</ele><time>2026-04-03T06:46:47Z</time></trkpt><trkpt lat="44.162084878271244" lon="3.6014626067982203"><ele>950.0</ele><time>2026-04-03T06:46:48Z</time></trkpt><trkpt lat="44.16214005485618" lon="3.6016410100426923"><ele>948.0</ele><time>2026-04-03T06:46:49Z</time></trkpt><trkpt lat="44.16218227169245" lon="3.6018098419812667"><ele>948.0</ele><time>2026-04-03T06:46:50Z</time></trkpt><trkpt lat="44.16219119310324" lon="3.6019832148449344"><ele>948.0</ele><time>2026-04-03T06:46:51Z</time></trkpt><trkpt lat="44.16217184896256" lon="3.6021552005168394"><ele>948.0</ele><time>2026-04-03T06:46:52Z</time></trkpt><trkpt lat="44.16209049803037" lon="3.602294359042205"><ele>948.0</ele><time>2026-04-03T06:46:53Z</time></trkpt><trkpt lat="44.161995929478664" lon="3.602417241465065"><ele>947.6666666666667</ele><time>2026-04-03T06:46:54Z</time></trkpt><trkpt lat="44.161908761433125" lon="3.6025784580206537"><ele>947.3333333333334</ele><time>2026-04-03T06:46:55Z</time></trkpt><trkpt lat="44.16181089791071" lon="3.60276195026743"><ele>947.0</ele><time>2026-04-03T06:46:56Z</time></trkpt><trkpt lat="44.161724776845894" lon="3.602987597688079"><ele>947.0</ele><time>2026-04-03T06:46:57Z</time></trkpt><trkpt lat="44.161649866517365" lon="3.6032171406081788"><ele>947.0</ele><time>2026-04-03T06:46:58Z</time></trkpt><trkpt lat="44.16158493352652" lon="3.603466410532994"><ele>947.0</ele><time>2026-04-03T06:46:59Z</time></trkpt><trkpt lat="44.16152830590901" lon="3.6037115606813455"><ele>938.6666666666667</ele><time>2026-04-03T06:47:00Z</time></trkpt><trkpt lat="44.161471252652106" lon="3.6039599923407164"><ele>930.3333333333333</ele><time>2026-04-03T06:47:01Z</time></trkpt><trkpt lat="44.16143126392166" lon="3.6042103271777686"><ele>922.0</ele><time>2026-04-03T06:47:02Z</time></trkpt><trkpt lat="44.16140937739141" lon="3.6044449971658747"><ele>922.25</ele><time>2026-04-03T06:47:03Z</time></trkpt><trkpt lat="44.16140626067613" lon="3.6046431370208145"><ele>922.5</ele><time>2026-04-03T06:47:04Z</time></trkpt><trkpt lat="44.16140517983444" lon="3.6048125191686764"><ele>922.75</ele><time>2026-04-03T06:47:05Z</time></trkpt><trkpt lat="44.161339162768726" lon="3.604973640682026"><ele>923.0</ele><time>2026-04-03T06:47:06Z</time></trkpt><trkpt lat="44.161286878765004" lon="3.60518515016038"><ele>922.3333333333334</ele><time>2026-04-03T06:47:07Z</time></trkpt><trkpt lat="44.16121114818068" lon="3.605393883698109"><ele>921.6666666666667</ele><time>2026-04-03T06:47:08Z</time></trkpt><trkpt lat="44.16111954064974" lon="3.605570118229855"><ele>921.0</ele><time>2026-04-03T06:47:09Z</time></trkpt><trkpt lat="44.161059834493116" lon="3.6057508334589725"><ele>921.0</ele><time>2026-04-03T06:47:10Z</time></trkpt><trkpt lat="44.1610162361922" lon="3.605933768181199"><ele>921.0</ele><time>2026-04-03T06:47:11Z</time></trkpt><trkpt lat="44.1610113035591" lon="3.606130542123953"><ele>921.0</ele><time>2026-04-03T06:47:12Z</time></trkpt><trkpt lat="44.161018754007884" lon="3.6063371207068635"><ele>921.0</ele><time>2026-04-03T06:47:13Z</time></trkpt><trkpt lat="44.16100677026859" lon="3.60653781506635"><ele>920.6666666666667</ele><time>2026-04-03T06:47:14Z</time></trkpt><trkpt lat="44.16094146781253" lon="3.6067133172652093"><ele>920.3333333333334</ele><time>2026-04-03T06:47:15Z</time></trkpt><trkpt lat="44.1608648801156" lon="3.6068982576237163"><ele>920.0</ele><time>2026-04-03T06:47:16Z</time></trkpt><trkpt lat="44.160786953583255" lon="3.6071118447170663"><ele>914.0</ele><time>2026-04-03T06:47:17Z</time></trkpt><trkpt lat="44.16069172491247" lon="3.6073253022056626"><ele>908.0</ele><time>2026-04-03T06:47:18Z</time></trkpt><trkpt lat="44.16060526828338" lon="3.607544381899813"><ele>902.0</ele><time>2026-04-03T06:47:19Z</time></trkpt><trkpt lat="44.16051731955749" lon="3.60776827674154"><ele>902.6666666666667</ele><time>2026-04-03T06:47:20Z</time></trkpt><trkpt lat="44.16043020886768" lon="3.6079884521752787"><ele>903.3333333333333</ele><time>2026-04-03T06:47:21Z</time></trkpt><trkpt lat="44.16034866407219" lon="3.6082003013604718"><ele>904.0</ele><time>2026-04-03T06:47:22Z</time></trkpt><trkpt lat="44.16026881728501" lon="3.6084104975266307"><ele>904.0</ele><time>2026-04-03T06:47:23Z</time></trkpt><trkpt lat="44.16020411590116" lon="3.608631736901398"><ele>904.0</ele><time>2026-04-03T06:47:24Z</time></trkpt><trkpt lat="44.16016786570043" lon="3.6088524452421913"><ele>904.0</ele><time>2026-04-03T06:47:25Z</time></trkpt><trkpt lat="44.1601552943706" lon="3.609070427093013"><ele>902.5</ele><time>2026-04-03T06:47:26Z</time></trkpt><trkpt lat="44.16016465497885" lon="3.609273585616352"><ele>901.0</ele><time>2026-04-03T06:47:27Z</time></trkpt><trkpt lat="44.160210581063495" lon="3.6094554005782644"><ele>899.5</ele><time>2026-04-03T06:47:28Z</time></trkpt><trkpt lat="44.16025913004368" lon="3.609642592713386"><ele>898.0</ele><time>2026-04-03T06:47:29Z</time></trkpt><trkpt lat="44.16025869544781" lon="3.6098245343132724"><ele>897.5</ele><time>2026-04-03T06:47:30Z</time></trkpt><trkpt lat="44.16023515619755" lon="3.6099819586407724"><ele>897.0</ele><time>2026-04-03T06:47:31Z</time></trkpt><trkpt lat="44.16017722171489" lon="3.61012935734414"><ele>896.5</ele><time>2026-04-03T06:47:32Z</time></trkpt><trkpt lat="44.16009999161953" lon="3.6102990049337516"><ele>896.0</ele><time>2026-04-03T06:47:33Z</time></trkpt><trkpt lat="44.159982339370245" lon="3.610468044720704"><ele>897.0</ele><time>2026-04-03T06:47:34Z</time></trkpt><trkpt lat="44.15985925187353" lon="3.610633628358535"><ele>898.0</ele><time>2026-04-03T06:47:35Z</time></trkpt><trkpt lat="44.159740245771836" lon="3.6107840830018083"><ele>899.0</ele><time>2026-04-03T06:47:36Z</time></trkpt><trkpt lat="44.15963554621448" lon="3.610923420321299"><ele>899.0000000000001</ele><time>2026-04-03T06:47:37Z</time></trkpt><trkpt lat="44.15955469361487" lon="3.6110162967551185"><ele>899.0</ele><time>2026-04-03T06:47:38Z</time></trkpt><trkpt lat="44.15949189436009" lon="3.6110414672910975"><ele>899.0</ele><time>2026-04-03T06:47:39Z</time></trkpt><trkpt lat="44.15942910120418" lon="3.6109757556572135"><ele>899.0</ele><time>2026-04-03T06:47:40Z</time></trkpt><trkpt lat="44.15937520330017" lon="3.6108772609206916"><ele>899.0000000000001</ele><time>2026-04-03T06:47:41Z</time></trkpt><trkpt lat="44.15927321455187" lon="3.6108266953578703"><ele>899.0</ele><time>2026-04-03T06:47:42Z</time></trkpt><trkpt lat="44.15913586997251" lon="3.61080687729759"><ele>900.25</ele><time>2026-04-03T06:47:43Z</time></trkpt><trkpt lat="44.15898343997871" lon="3.610863358183555"><ele>901.5</ele><time>2026-04-03T06:47:44Z</time></trkpt><trkpt lat="44.15884111501236" lon="3.6109183026214478"><ele>902.75</ele><time>2026-04-03T06:47:45Z</time></trkpt><trkpt lat="44.158699523594635" lon="3.610955133280734"><ele>904.0</ele><time>2026-04-03T06:47:46Z</time></trkpt><trkpt lat="44.15853236315503" lon="3.6109847319077435"><ele>904.0</ele><time>2026-04-03T06:47:47Z</time></trkpt><trkpt lat="44.15837990217777" lon="3.61097694792836"><ele>904.0</ele><time>2026-04-03T06:47:48Z</time></trkpt><trkpt lat="44.158224808811035" lon="3.6109374203787787"><ele>904.0</ele><time>2026-04-03T06:47:49Z</time></trkpt><trkpt lat="44.15807684935996" lon="3.611001321777944"><ele>902.75</ele><time>2026-04-03T06:47:50Z</time></trkpt><trkpt lat="44.1579345695894" lon="3.611065202820201"><ele>901.5</ele><time>2026-04-03T06:47:51Z</time></trkpt><trkpt lat="44.15779072696361" lon="3.61111214460218"><ele>900.25</ele><time>2026-04-03T06:47:52Z</time></trkpt><trkpt lat="44.15766455502237" lon="3.6111707930852823"><ele>899.0</ele><time>2026-04-03T06:47:53Z</time></trkpt><trkpt lat="44.15757666112137" lon="3.611266692814731"><ele>903.2</ele><time>2026-04-03T06:47:54Z</time></trkpt><trkpt lat="44.157496953257045" lon="3.611344910972099"><ele>907.4000000000001</ele><time>2026-04-03T06:47:55Z</time></trkpt><trkpt lat="44.15744002868335" lon="3.6114260929001163"><ele>911.6</ele><time>2026-04-03T06:47:56Z</time></trkpt><trkpt lat="44.15742686518133" lon="3.611550074810682"><ele>915.8</ele><time>2026-04-03T06:47:58Z</time></trkpt><trkpt lat="44.157536873057104" lon="3.611619159056995"><ele>920.0</ele><time>2026-04-03T06:48:00Z</time></trkpt><trkpt lat="44.157608846386864" lon="3.6115280790054305"><ele>920.0</ele><time>2026-04-03T06:48:01Z</time></trkpt><trkpt lat="44.157691881746494" lon="3.611422464841849"><ele>920.0</ele><time>2026-04-03T06:48:02Z</time></trkpt><trkpt lat="44.157802568989304" lon="3.61134217017339"><ele>920.0</ele><time>2026-04-03T06:48:03Z</time></trkpt><trkpt lat="44.15793124110136" lon="3.611296695886373"><ele>920.0</ele><time>2026-04-03T06:48:04Z</time></trkpt><trkpt lat="44.15806879042797" lon="3.6112824579767375"><ele>920.0</ele><time>2026-04-03T06:48:05Z</time></trkpt><trkpt lat="44.158179136819356" lon="3.6112858548581817"><ele>920.0</ele><time>2026-04-03T06:48:06Z</time></trkpt><trkpt lat="44.15829699963199" lon="3.6113080434143616"><ele>920.0</ele><time>2026-04-03T06:48:07Z</time></trkpt><trkpt lat="44.158424801004905" lon="3.611367554746491"><ele>920.0</ele><time>2026-04-03T06:48:08Z</time></trkpt><trkpt lat="44.15856752625187" lon="3.611376079126576"><ele>921.5</ele><time>2026-04-03T06:48:09Z</time></trkpt><trkpt lat="44.15870335968401" lon="3.6114088716634583"><ele>923.0</ele><time>2026-04-03T06:48:10Z</time></trkpt><trkpt lat="44.15883600898174" lon="3.6114460736921696"><ele>924.5</ele><time>2026-04-03T06:48:11Z</time></trkpt><trkpt lat="44.15895840688198" lon="3.6114842340679454"><ele>926.0</ele><time>2026-04-03T06:48:12Z</time></trkpt><trkpt lat="44.159054006154335" lon="3.611535481912528"><ele>926.0</ele><time>2026-04-03T06:48:13Z</time></trkpt><trkpt lat="44.159148812199355" lon="3.6116167613232655"><ele>926.0</ele><time>2026-04-03T06:48:14Z</time></trkpt><trkpt lat="44.1592451582551" lon="3.6117465453283266"><ele>926.0</ele><time>2026-04-03T06:48:15Z</time></trkpt><trkpt lat="44.159356303523516" lon="3.6119156303257096"><ele>926.0</ele><time>2026-04-03T06:48:16Z</time></trkpt><trkpt lat="44.159462603523245" lon="3.6120960059002027"><ele>936.3333333333334</ele><time>2026-04-03T06:48:17Z</time></trkpt><trkpt lat="44.15959374935068" lon="3.6122688644033327"><ele>946.6666666666667</ele><time>2026-04-03T06:48:18Z</time></trkpt><trkpt lat="44.15970467929427" lon="3.6124770057866433"><ele>957.0</ele><time>2026-04-03T06:48:19Z</time></trkpt><trkpt lat="44.15982856391366" lon="3.612644642504156"><ele>956.75</ele><time>2026-04-03T06:48:20Z</time></trkpt><trkpt lat="44.15994128339924" lon="3.612793976384117"><ele>956.5</ele><time>2026-04-03T06:48:21Z</time></trkpt><trkpt lat="44.160034959513105" lon="3.6129227218508584"><ele>956.25</ele><time>2026-04-03T06:48:22Z</time></trkpt><trkpt lat="44.160108560890194" lon="3.6130530052254657"><ele>956.0</ele><time>2026-04-03T06:48:23Z</time></trkpt><trkpt lat="44.16015381721878" lon="3.613178781928342"><ele>956.0</ele><time>2026-04-03T06:48:24Z</time></trkpt><trkpt lat="44.16020029176863" lon="3.613295750984704"><ele>955.9999999999999</ele><time>2026-04-03T06:48:25Z</time></trkpt><trkpt lat="44.16027456352905" lon="3.613355880907368"><ele>955.9999999999999</ele><time>2026-04-03T06:48:26Z</time></trkpt><trkpt lat="44.16037410656974" lon="3.613374977472437"><ele>956.0</ele><time>2026-04-03T06:48:27Z</time></trkpt><trkpt lat="44.160487101772475" lon="3.613345555352458"><ele>956.0</ele><time>2026-04-03T06:48:28Z</time></trkpt><trkpt lat="44.16059275049191" lon="3.613269658281139"><ele>956.0</ele><time>2026-04-03T06:48:29Z</time></trkpt><trkpt lat="44.16069830378076" lon="3.6132001461677508"><ele>956.0</ele><time>2026-04-03T06:48:30Z</time></trkpt><trkpt lat="44.16079196615652" lon="3.613280646924132"><ele>956.0</ele><time>2026-04-03T06:48:31Z</time></trkpt><trkpt lat="44.1609087925254" lon="3.613344559851111"><ele>956.0</ele><time>2026-04-03T06:48:32Z</time></trkpt><trkpt lat="44.16103871472416" lon="3.613415601048199"><ele>957.75</ele><time>2026-04-03T06:48:33Z</time></trkpt><trkpt lat="44.16117533801756" lon="3.6134795889609723"><ele>959.5</ele><time>2026-04-03T06:48:34Z</time></trkpt><trkpt lat="44.161309930631475" lon="3.613550811691165"><ele>961.25</ele><time>2026-04-03T06:48:35Z</time></trkpt><trkpt lat="44.1614416275271" lon="3.613629279069332"><ele>963.0</ele><time>2026-04-03T06:48:36Z</time></trkpt><trkpt lat="44.161568273668586" lon="3.6137104444949775"><ele>963.0</ele><time>2026-04-03T06:48:37Z</time></trkpt><trkpt lat="44.16168227088462" lon="3.6137962386555627"><ele>963.0</ele><time>2026-04-03T06:48:38Z</time></trkpt><trkpt lat="44.16175781773106" lon="3.613944048486901"><ele>963.0</ele><time>2026-04-03T06:48:39Z</time></trkpt><trkpt lat="44.161838264790234" lon="3.6141131474177586"><ele>963.0</ele><time>2026-04-03T06:48:40Z</time></trkpt><trkpt lat="44.16193526657488" lon="3.614301406349444"><ele>972.0</ele><time>2026-04-03T06:48:41Z</time></trkpt><trkpt lat="44.162022205075694" lon="3.614497367002189"><ele>981.0</ele><time>2026-04-03T06:48:42Z</time></trkpt><trkpt lat="44.162119438692734" lon="3.6146757181716844"><ele>990.0</ele><time>2026-04-03T06:48:43Z</time></trkpt><trkpt lat="44.16219822973819" lon="3.614853119131965"><ele>990.0</ele><time>2026-04-03T06:48:44Z</time></trkpt><trkpt lat="44.16226022583229" lon="3.6150173980350404"><ele>990.0</ele><time>2026-04-03T06:48:45Z</time></trkpt><trkpt lat="44.16234628327503" lon="3.615150132217819"><ele>990.0</ele><time>2026-04-03T06:48:46Z</time></trkpt><trkpt lat="44.16244408644632" lon="3.615258650587037"><ele>990.0</ele><time>2026-04-03T06:48:47Z</time></trkpt><trkpt lat="44.16252819568783" lon="3.6153406894375864"><ele>989.6666666666666</ele><time>2026-04-03T06:48:48Z</time></trkpt><trkpt lat="44.16260790519564" lon="3.615358077113183"><ele>989.3333333333333</ele><time>2026-04-03T06:48:49Z</time></trkpt><trkpt lat="44.162692336488966" lon="3.615309552053034"><ele>989.0</ele><time>2026-04-03T06:48:50Z</time></trkpt><trkpt lat="44.16276411944126" lon="3.615223590972707"><ele>988.6666666666666</ele><time>2026-04-03T06:48:51Z</time></trkpt><trkpt lat="44.16282644267992" lon="3.615130837931248"><ele>988.3333333333333</ele><time>2026-04-03T06:48:52Z</time></trkpt><trkpt lat="44.1629024737464" lon="3.6150822377545135"><ele>988.0</ele><time>2026-04-03T06:48:53Z</time></trkpt><trkpt lat="44.16296180045711" lon="3.615026855033531"><ele>987.1666666666666</ele><time>2026-04-03T06:48:54Z</time></trkpt><trkpt lat="44.16303208561348" lon="3.6149641060423474"><ele>986.3333333333333</ele><time>2026-04-03T06:48:56Z</time></trkpt><trkpt lat="44.16309302507846" lon="3.6148914326064467"><ele>985.5</ele><time>2026-04-03T06:54:13Z</time></trkpt><trkpt lat="44.16317907167303" lon="3.6148325637512544"><ele>984.6666666666667</ele><time>2026-04-03T06:54:14Z</time></trkpt><trkpt lat="44.16325350064643" lon="3.6147601893386443"><ele>983.8333333333334</ele><time>2026-04-03T06:54:15Z</time></trkpt><trkpt lat="44.16334209707687" lon="3.6147238453011985"><ele>983.0</ele><time>2026-04-03T06:54:16Z</time></trkpt><trkpt lat="44.16342809095987" lon="3.614743725335754"><ele>983.0</ele><time>2026-04-03T06:54:17Z</time></trkpt><trkpt lat="44.1635443156135" lon="3.614760560947928"><ele>983.0</ele><time>2026-04-03T06:54:18Z</time></trkpt><trkpt lat="44.16368202283973" lon="3.6147751421139223"><ele>983.0</ele><time>2026-04-03T06:54:19Z</time></trkpt><trkpt lat="44.16381352122876" lon="3.614828914925012"><ele>983.0</ele><time>2026-04-03T06:54:20Z</time></trkpt><trkpt lat="44.16394386368582" lon="3.6148912270610185"><ele>984.0</ele><time>2026-04-03T06:54:21Z</time></trkpt><trkpt lat="44.164078248085836" lon="3.6149616686131156"><ele>985.0</ele><time>2026-04-03T06:54:22Z</time></trkpt><trkpt lat="44.16419948831616" lon="3.615019936346207"><ele>986.0</ele><time>2026-04-03T06:54:23Z</time></trkpt><trkpt lat="44.16429186690052" lon="3.6150507269636125"><ele>987.0</ele><time>2026-04-03T06:54:24Z</time></trkpt><trkpt lat="44.16437170514429" lon="3.615050125511898"><ele>988.0</ele><time>2026-04-03T06:54:25Z</time></trkpt><trkpt lat="44.16449095501044" lon="3.6151025373280463"><ele>988.0</ele><time>2026-04-03T06:54:27Z</time></trkpt><trkpt lat="44.1644809675229" lon="3.6152475063867016"><ele>988.0</ele><time>2026-04-03T06:54:29Z</time></trkpt><trkpt lat="44.16437253625426" lon="3.61519217928853"><ele>988.0</ele><time>2026-04-03T06:54:31Z</time></trkpt><trkpt lat="44.16428180456208" lon="3.6151668733336857"><ele>988.0</ele><time>2026-04-03T06:54:32Z</time></trkpt><trkpt lat="44.16417043509148" lon="3.615139128860697"><ele>988.0</ele><time>2026-04-03T06:54:33Z</time></trkpt><trkpt lat="44.164044124367585" lon="3.615130547646593"><ele>987.0</ele><time>2026-04-03T06:54:34Z</time></trkpt><trkpt lat="44.1639145157788" lon="3.615082655012918"><ele>986.0</ele><time>2026-04-03T06:54:35Z</time></trkpt><trkpt lat="44.163798932408135" lon="3.6150524813189837"><ele>985.0</ele><time>2026-04-03T06:54:36Z</time></trkpt><trkpt lat="44.16370613260293" lon="3.615046688785302"><ele>984.0</ele><time>2026-04-03T06:54:37Z</time></trkpt><trkpt lat="44.16362301870599" lon="3.615070366452117"><ele>983.0</ele><time>2026-04-03T06:54:38Z</time></trkpt><trkpt lat="44.16354100077694" lon="3.615145125602253"><ele>983.0</ele><time>2026-04-03T06:54:39Z</time></trkpt><trkpt lat="44.16348210667504" lon="3.615281111277722"><ele>983.0</ele><time>2026-04-03T06:54:40Z</time></trkpt><trkpt lat="44.16342800839044" lon="3.6154481176029565"><ele>983.0</ele><time>2026-04-03T06:54:41Z</time></trkpt><trkpt lat="44.163361465840026" lon="3.6156180382776704"><ele>983.0</ele><time>2026-04-03T06:54:42Z</time></trkpt><trkpt lat="44.1632766566525" lon="3.615797881781642"><ele>984.6666666666667</ele><time>2026-04-03T06:54:43Z</time></trkpt><trkpt lat="44.16319402424516" lon="3.6159878867599304"><ele>986.3333333333333</ele><time>2026-04-03T06:54:44Z</time></trkpt><trkpt lat="44.16313166207255" lon="3.616229027347689"><ele>988.0</ele><time>2026-04-03T06:54:45Z</time></trkpt><trkpt lat="44.1630436098656" lon="3.6164626071039274"><ele>994.6666666666666</ele><time>2026-04-03T06:54:46Z</time></trkpt><trkpt lat="44.16293341935795" lon="3.6166714086201006"><ele>1001.3333333333333</ele><time>2026-04-03T06:54:47Z</time></trkpt><trkpt lat="44.16283427144917" lon="3.616831377538866"><ele>1008.0</ele><time>2026-04-03T06:54:48Z</time></trkpt><trkpt lat="44.16274131424877" lon="3.6169702984072094"><ele>1008.6666666666666</ele><time>2026-04-03T06:54:49Z</time></trkpt><trkpt lat="44.162677639177495" lon="3.6171109804791817"><ele>1009.3333333333333</ele><time>2026-04-03T06:54:50Z</time></trkpt><trkpt lat="44.162645085382124" lon="3.6172419051046463"><ele>1010.0</ele><time>2026-04-03T06:54:51Z</time></trkpt><trkpt lat="44.16263921676229" lon="3.6173480384080916"><ele>1010.6666666666666</ele><time>2026-04-03T06:54:52Z</time></trkpt><trkpt lat="44.162678632628264" lon="3.6174497473427287"><ele>1011.3333333333333</ele><time>2026-04-03T06:54:54Z</time></trkpt><trkpt lat="44.162713226988885" lon="3.617525097317093"><ele>1012.0</ele><time>2026-04-03T06:54:57Z</time></trkpt><trkpt lat="44.162802234215256" lon="3.617518201415994"><ele>1012.0</ele><time>2026-04-03T06:54:58Z</time></trkpt><trkpt lat="44.16293148578322" lon="3.6175751145511184"><ele>1012.0</ele><time>2026-04-03T06:55:00Z</time></trkpt><trkpt lat="44.16301386717597" lon="3.6176151611022913"><ele>1012.0</ele><time>2026-04-03T06:55:01Z</time></trkpt><trkpt lat="44.16310016988898" lon="3.617647196870066"><ele>1012.0</ele><time>2026-04-03T06:55:02Z</time></trkpt><trkpt lat="44.163191621245836" lon="3.617674727520241"><ele>1012.0</ele><time>2026-04-03T06:55:03Z</time></trkpt><trkpt lat="44.16328996831432" lon="3.6176911610045774"><ele>1011.6</ele><time>2026-04-03T06:55:04Z</time></trkpt><trkpt lat="44.16338365743252" lon="3.6176846368417936"><ele>1011.2</ele><time>2026-04-03T06:55:05Z</time></trkpt><trkpt lat="44.163474390492105" lon="3.6176453811011524"><ele>1010.8</ele><time>2026-04-03T06:55:06Z</time></trkpt><trkpt lat="44.163567620902235" lon="3.6175862270887973"><ele>1010.4</ele><time>2026-04-03T06:55:07Z</time></trkpt><trkpt lat="44.16366718487852" lon="3.6175272552050544"><ele>1010.0</ele><time>2026-04-03T06:55:08Z</time></trkpt><trkpt lat="44.16377841499451" lon="3.6174707114107645"><ele>1010.0</ele><time>2026-04-03T06:55:09Z</time></trkpt><trkpt lat="44.16389242186117" lon="3.617410537376764"><ele>1010.0</ele><time>2026-04-03T06:55:10Z</time></trkpt><trkpt lat="44.163999773161926" lon="3.617361444747405"><ele>1010.0</ele><time>2026-04-03T06:55:11Z</time></trkpt><trkpt lat="44.164127883746225" lon="3.617321008803081"><ele>1010.0</ele><time>2026-04-03T06:55:12Z</time></trkpt><trkpt lat="44.16427115686075" lon="3.6173452085496702"><ele>1006.6666666666667</ele><time>2026-04-03T06:55:13Z</time></trkpt><trkpt lat="44.164422698102186" lon="3.6173481808880563"><ele>1003.3333333333333</ele><time>2026-04-03T06:55:14Z</time></trkpt><trkpt lat="44.164579277255456" lon="3.6173900266168615"><ele>1000.0</ele><time>2026-04-03T06:55:15Z</time></trkpt><trkpt lat="44.16473609042765" lon="3.617446345693526"><ele>999.6666666666666</ele><time>2026-04-03T06:55:16Z</time></trkpt><trkpt lat="44.164887772541476" lon="3.6175217470173826"><ele>999.3333333333333</ele><time>2026-04-03T06:55:17Z</time></trkpt><trkpt lat="44.16502950309655" lon="3.6176103567182354"><ele>999.0</ele><time>2026-04-03T06:55:18Z</time></trkpt><trkpt lat="44.16515485559131" lon="3.6177197163020334"><ele>993.75</ele><time>2026-04-03T06:55:19Z</time></trkpt><trkpt lat="44.1652626403709" lon="3.6178263033757343"><ele>988.5</ele><time>2026-04-03T06:55:20Z</time></trkpt><trkpt lat="44.16535941595966" lon="3.6179252252503193"><ele>983.25</ele><time>2026-04-03T06:55:21Z</time></trkpt><trkpt lat="44.165450664354374" lon="3.618016330001338"><ele>978.0</ele><time>2026-04-03T06:55:22Z</time></trkpt><trkpt lat="44.16554009183794" lon="3.6180998464485947"><ele>978.0</ele><time>2026-04-03T06:55:23Z</time></trkpt><trkpt lat="44.16563298494394" lon="3.61817610777906"><ele>978.0</ele><time>2026-04-03T06:55:24Z</time></trkpt><trkpt lat="44.16573388332506" lon="3.618239789523222"><ele>978.0</ele><time>2026-04-03T06:55:25Z</time></trkpt><trkpt lat="44.16585095182019" lon="3.6182819830626753"><ele>978.0</ele><time>2026-04-03T06:55:26Z</time></trkpt><trkpt lat="44.16597697338647" lon="3.6182859400469694"><ele>979.6666666666667</ele><time>2026-04-03T06:55:27Z</time></trkpt><trkpt lat="44.16611761280438" lon="3.618250519377052"><ele>981.3333333333334</ele><time>2026-04-03T06:55:28Z</time></trkpt><trkpt lat="44.16626736590719" lon="3.6181838808264444"><ele>983.0</ele><time>2026-04-03T06:55:29Z</time></trkpt><trkpt lat="44.16642832317441" lon="3.6181091102654426"><ele>978.3333333333334</ele><time>2026-04-03T06:55:30Z</time></trkpt><trkpt lat="44.16659874226581" lon="3.618030651317873"><ele>973.6666666666667</ele><time>2026-04-03T06:55:31Z</time></trkpt><trkpt lat="44.16676618999561" lon="3.6179614860674416"><ele>969.0</ele><time>2026-04-03T06:55:32Z</time></trkpt><trkpt lat="44.16693389273577" lon="3.6178863829215273"><ele>970.3333333333333</ele><time>2026-04-03T06:55:33Z</time></trkpt><trkpt lat="44.167099724636984" lon="3.6177825340257743"><ele>971.6666666666666</ele><time>2026-04-03T06:55:34Z</time></trkpt><trkpt lat="44.16726003069115" lon="3.61765695206875"><ele>973.0</ele><time>2026-04-03T06:55:35Z</time></trkpt><trkpt lat="44.16743499018" lon="3.6175535420641767"><ele>973.0</ele><time>2026-04-03T06:55:36Z</time></trkpt><trkpt lat="44.16761605088502" lon="3.617440363465473"><ele>973.0</ele><time>2026-04-03T06:55:37Z</time></trkpt><trkpt lat="44.16780090798656" lon="3.617348185335611"><ele>973.0</ele><time>2026-04-03T06:55:38Z</time></trkpt><trkpt lat="44.16799579604447" lon="3.6172649996477637"><ele>973.0</ele><time>2026-04-03T06:55:39Z</time></trkpt><trkpt lat="44.16819119169177" lon="3.6171633133261407"><ele>973.0</ele><time>2026-04-03T06:55:40Z</time></trkpt><trkpt lat="44.16838693528609" lon="3.617081609641659"><ele>973.0</ele><time>2026-04-03T06:55:41Z</time></trkpt><trkpt lat="44.168583676019594" lon="3.616990565156107"><ele>974.3333333333333</ele><time>2026-04-03T06:55:42Z</time></trkpt><trkpt lat="44.168774641291115" lon="3.616892213019029"><ele>975.6666666666667</ele><time>2026-04-03T06:55:43Z</time></trkpt><trkpt lat="44.16895738527869" lon="3.616801308439516"><ele>977.0</ele><time>2026-04-03T06:55:44Z</time></trkpt><trkpt lat="44.16914703950104" lon="3.616746536029996"><ele>972.0</ele><time>2026-04-03T06:55:45Z</time></trkpt><trkpt lat="44.169352489715415" lon="3.6167076667984346"><ele>967.0</ele><time>2026-04-03T06:55:46Z</time></trkpt><trkpt lat="44.16953918540937" lon="3.6166754240206402"><ele>962.0</ele><time>2026-04-03T06:55:47Z</time></trkpt><trkpt lat="44.16972143906793" lon="3.6166285219252408"><ele>954.6666666666667</ele><time>2026-04-03T06:55:48Z</time></trkpt><trkpt lat="44.169896289050875" lon="3.6165444200793675"><ele>947.3333333333333</ele><time>2026-04-03T06:55:49Z</time></trkpt><trkpt lat="44.17006001412065" lon="3.616429252792983"><ele>940.0</ele><time>2026-04-03T06:55:50Z</time></trkpt><trkpt lat="44.17020591607483" lon="3.6163339922677986"><ele>940.0</ele><time>2026-04-03T06:55:51Z</time></trkpt><trkpt lat="44.17032104297835" lon="3.6162135660184154"><ele>940.0</ele><time>2026-04-03T06:55:52Z</time></trkpt><trkpt lat="44.17042137723678" lon="3.61608043935853"><ele>940.0</ele><time>2026-04-03T06:55:53Z</time></trkpt><trkpt lat="44.17054126777082" lon="3.6160188057878058"><ele>940.0</ele><time>2026-04-03T06:55:54Z</time></trkpt><trkpt lat="44.17067199754155" lon="3.6160378139372975"><ele>944.0</ele><time>2026-04-03T06:55:55Z</time></trkpt><trkpt lat="44.17083666907819" lon="3.6160687796793995"><ele>948.0</ele><time>2026-04-03T06:55:56Z</time></trkpt><trkpt lat="44.1710121744727" lon="3.616077278685921"><ele>952.0</ele><time>2026-04-03T06:55:57Z</time></trkpt><trkpt lat="44.17118558170968" lon="3.6161206305173272"><ele>949.4000000000001</ele><time>2026-04-03T06:55:58Z</time></trkpt><trkpt lat="44.17132775306662" lon="3.6161821366035074"><ele>946.8000000000001</ele><time>2026-04-03T06:55:59Z</time></trkpt><trkpt lat="44.17143648180863" lon="3.616246893617656"><ele>944.2</ele><time>2026-04-03T06:56:00Z</time></trkpt><trkpt lat="44.17151658062656" lon="3.6162754790223843"><ele>941.6</ele><time>2026-04-03T06:56:01Z</time></trkpt><trkpt lat="44.17159648976591" lon="3.6162404954869007"><ele>939.0</ele><time>2026-04-03T06:56:02Z</time></trkpt><trkpt lat="44.171663051923254" lon="3.6161358026833423"><ele>939.0</ele><time>2026-04-03T06:56:03Z</time></trkpt><trkpt lat="44.17170109981397" lon="3.615970394160929"><ele>939.0</ele><time>2026-04-03T06:56:04Z</time></trkpt><trkpt lat="44.17169744315788" lon="3.6157893286960605"><ele>939.0</ele><time>2026-04-03T06:56:05Z</time></trkpt><trkpt lat="44.17173756842031" lon="3.615645950163368"><ele>939.0</ele><time>2026-04-03T06:56:06Z</time></trkpt><trkpt lat="44.17179832885263" lon="3.6155556668280266"><ele>939.0</ele><time>2026-04-03T06:56:07Z</time></trkpt><trkpt lat="44.171903299967006" lon="3.6155648664737363"><ele>939.0</ele><time>2026-04-03T06:56:08Z</time></trkpt><trkpt lat="44.17204295826972" lon="3.615548659641942"><ele>939.0</ele><time>2026-04-03T06:56:09Z</time></trkpt><trkpt lat="44.172203463030655" lon="3.615524872191173"><ele>939.0</ele><time>2026-04-03T06:56:10Z</time></trkpt><trkpt lat="44.172366464879566" lon="3.6154978438531247"><ele>940.0</ele><time>2026-04-03T06:56:11Z</time></trkpt><trkpt lat="44.172536547640966" lon="3.6154393087903314"><ele>941.0</ele><time>2026-04-03T06:56:12Z</time></trkpt><trkpt lat="44.17270325522388" lon="3.615365481915746"><ele>942.0</ele><time>2026-04-03T06:56:13Z</time></trkpt><trkpt lat="44.172834501945125" lon="3.6152832928178626"><ele>942.0</ele><time>2026-04-03T06:56:14Z</time></trkpt><trkpt lat="44.17295949080905" lon="3.6152480727535976"><ele>942.0</ele><time>2026-04-03T06:56:15Z</time></trkpt><trkpt lat="44.173053008609685" lon="3.6151804740027305"><ele>942.0</ele><time>2026-04-03T06:56:16Z</time></trkpt><trkpt lat="44.17312234431965" lon="3.615053150138963"><ele>942.0</ele><time>2026-04-03T06:56:17Z</time></trkpt><trkpt lat="44.173178128190166" lon="3.6148848338866775"><ele>941.5</ele><time>2026-04-03T06:56:18Z</time></trkpt><trkpt lat="44.173234286106776" lon="3.614713725421443"><ele>941.0</ele><time>2026-04-03T06:56:19Z</time></trkpt><trkpt lat="44.1732985245847" lon="3.6145561154037678"><ele>940.5</ele><time>2026-04-03T06:56:20Z</time></trkpt><trkpt lat="44.17340510240571" lon="3.61447486233781"><ele>940.0</ele><time>2026-04-03T06:56:21Z</time></trkpt><trkpt lat="44.17351247119608" lon="3.6144378136277378"><ele>940.0</ele><time>2026-04-03T06:56:22Z</time></trkpt><trkpt lat="44.173637155340245" lon="3.6144486294577"><ele>940.0</ele><time>2026-04-03T06:56:23Z</time></trkpt><trkpt lat="44.17377287625243" lon="3.614504209629475"><ele>940.0</ele><time>2026-04-03T06:56:24Z</time></trkpt><trkpt lat="44.17393332315644" lon="3.6144779167736307"><ele>940.0</ele><time>2026-04-03T06:56:25Z</time></trkpt><trkpt lat="44.17411882682275" lon="3.6144594546261404"><ele>937.6666666666666</ele><time>2026-04-03T06:56:26Z</time></trkpt><trkpt lat="44.17429372885152" lon="3.614456718498651"><ele>935.3333333333333</ele><time>2026-04-03T06:56:27Z</time></trkpt><trkpt lat="44.174452159085654" lon="3.6144843455228166"><ele>933.0</ele><time>2026-04-03T06:56:28Z</time></trkpt><trkpt lat="44.1745699251291" lon="3.614630293912418"><ele>926.0</ele><time>2026-04-03T06:56:29Z</time></trkpt><trkpt lat="44.17469785513693" lon="3.614705804646848"><ele>919.0</ele><time>2026-04-03T06:56:30Z</time></trkpt><trkpt lat="44.17478588440412" lon="3.6147701747029624"><ele>912.0</ele><time>2026-04-03T06:56:31Z</time></trkpt><trkpt lat="44.174875801297354" lon="3.6147647101439824"><ele>905.0</ele><time>2026-04-03T06:56:32Z</time></trkpt><trkpt lat="44.17496093708874" lon="3.6147097883284367"><ele>898.0</ele><time>2026-04-03T06:56:33Z</time></trkpt><trkpt lat="44.175046431384644" lon="3.6147005180182883"><ele>898.0</ele><time>2026-04-03T06:56:34Z</time></trkpt><trkpt lat="44.17511603606776" lon="3.614776313605809"><ele>898.0</ele><time>2026-04-03T06:56:35Z</time></trkpt><trkpt lat="44.17513231463754" lon="3.614937813482225"><ele>898.0</ele><time>2026-04-03T06:56:36Z</time></trkpt><trkpt lat="44.17520245926419" lon="3.6150798334790255"><ele>898.0</ele><time>2026-04-03T06:56:37Z</time></trkpt><trkpt lat="44.17527196482836" lon="3.615212391831711"><ele>898.0</ele><time>2026-04-03T06:56:38Z</time></trkpt><trkpt lat="44.175376535507176" lon="3.6152643965139952"><ele>898.0</ele><time>2026-04-03T06:56:39Z</time></trkpt><trkpt lat="44.175492701137514" lon="3.615270461526073"><ele>898.0</ele><time>2026-04-03T06:56:40Z</time></trkpt><trkpt lat="44.17560410447927" lon="3.61532917218266"><ele>898.0</ele><time>2026-04-03T06:56:41Z</time></trkpt><trkpt lat="44.17569076627313" lon="3.615480836423802"><ele>898.0</ele><time>2026-04-03T06:56:42Z</time></trkpt><trkpt lat="44.17578952837089" lon="3.615582678693621"><ele>896.8333333333333</ele><time>2026-04-03T06:56:43Z</time></trkpt><trkpt lat="44.17585506727583" lon="3.615682457312281"><ele>895.6666666666666</ele><time>2026-04-03T06:56:44Z</time></trkpt><trkpt lat="44.175907792652055" lon="3.615734597114193"><ele>894.5</ele><time>2026-04-03T06:56:46Z</time></trkpt><trkpt lat="44.17581758074396" lon="3.61576207307803"><ele>893.3333333333333</ele><time>2026-04-03T06:56:49Z</time></trkpt><trkpt lat="44.175787677825376" lon="3.615682446688966"><ele>892.1666666666666</ele><time>2026-04-03T06:56:50Z</time></trkpt><trkpt lat="44.175713175024995" lon="3.615609008298325"><ele>891.0</ele><time>2026-04-03T06:56:51Z</time></trkpt><trkpt lat="44.17560762367578" lon="3.615483799510116"><ele>892.75</ele><time>2026-04-03T06:56:52Z</time></trkpt><trkpt lat="44.175486284390594" lon="3.615388065585767"><ele>894.5</ele><time>2026-04-03T06:56:53Z</time></trkpt><trkpt lat="44.17534771916564" lon="3.615343352013452"><ele>896.25</ele><time>2026-04-03T06:56:54Z</time></trkpt><trkpt lat="44.17521058734466" lon="3.615291416590461"><ele>898.0</ele><time>2026-04-03T06:56:55Z</time></trkpt><trkpt lat="44.17510358596416" lon="3.615167098597495"><ele>898.0</ele><time>2026-04-03T06:56:56Z</time></trkpt><trkpt lat="44.17498874176529" lon="3.6150627231702517"><ele>898.0</ele><time>2026-04-03T06:56:57Z</time></trkpt><trkpt lat="44.17485584050492" lon="3.615035525222406"><ele>898.0</ele><time>2026-04-03T06:56:58Z</time></trkpt><trkpt lat="44.174720454217116" lon="3.615056569905502"><ele>898.0</ele><time>2026-04-03T06:56:59Z</time></trkpt><trkpt lat="44.17458880790535" lon="3.614983375053001"><ele>896.0</ele><time>2026-04-03T06:57:00Z</time></trkpt><trkpt lat="44.17443228049789" lon="3.614918482780616"><ele>894.0</ele><time>2026-04-03T06:57:01Z</time></trkpt><trkpt lat="44.17427206548517" lon="3.6149009734045983"><ele>892.0</ele><time>2026-04-03T06:57:02Z</time></trkpt><trkpt lat="44.17412576587443" lon="3.614878820267358"><ele>896.4000000000001</ele><time>2026-04-03T06:57:03Z</time></trkpt><trkpt lat="44.17401413106056" lon="3.6148710020816655"><ele>900.8000000000001</ele><time>2026-04-03T06:57:04Z</time></trkpt><trkpt lat="44.17392146976653" lon="3.614886645567109"><ele>905.2</ele><time>2026-04-03T06:57:05Z</time></trkpt><trkpt lat="44.173838901622254" lon="3.6149486741753045"><ele>909.6</ele><time>2026-04-03T06:57:06Z</time></trkpt><trkpt lat="44.17376909512687" lon="3.6150685876226567"><ele>914.0</ele><time>2026-04-03T06:57:07Z</time></trkpt><trkpt lat="44.173734352100645" lon="3.6152200590184087"><ele>909.6</ele><time>2026-04-03T06:57:08Z</time></trkpt><trkpt lat="44.17375287736612" lon="3.6153687868212776"><ele>905.2</ele><time>2026-04-03T06:57:09Z</time></trkpt><trkpt lat="44.17377147136927" lon="3.615509467461126"><ele>900.8000000000001</ele><time>2026-04-03T06:57:10Z</time></trkpt><trkpt lat="44.1737782141205" lon="3.615644584546957"><ele>896.4000000000001</ele><time>2026-04-03T06:57:11Z</time></trkpt><trkpt lat="44.173747466905304" lon="3.6157690097635484"><ele>892.0</ele><time>2026-04-03T06:57:12Z</time></trkpt><trkpt lat="44.173688773070495" lon="3.615887863741985"><ele>892.0</ele><time>2026-04-03T06:57:13Z</time></trkpt><trkpt lat="44.17360679996047" lon="3.6159767426827556"><ele>892.0</ele><time>2026-04-03T06:57:14Z</time></trkpt><trkpt lat="44.173473338241266" lon="3.6160061320974353"><ele>892.0</ele><time>2026-04-03T06:57:15Z</time></trkpt><trkpt lat="44.17332686734405" lon="3.6160608694546346"><ele>892.0</ele><time>2026-04-03T06:57:16Z</time></trkpt><trkpt lat="44.17319642640603" lon="3.616130346795455"><ele>895.0</ele><time>2026-04-03T06:57:17Z</time></trkpt><trkpt lat="44.17309333506108" lon="3.6161912601905777"><ele>898.0</ele><time>2026-04-03T06:57:18Z</time></trkpt><trkpt lat="44.17302897729893" lon="3.6163048666822086"><ele>901.0</ele><time>2026-04-03T06:57:19Z</time></trkpt><trkpt lat="44.173004622889465" lon="3.616455651918478"><ele>904.0</ele><time>2026-04-03T06:57:20Z</time></trkpt><trkpt lat="44.17302653029935" lon="3.6166303676817653"><ele>904.0</ele><time>2026-04-03T06:57:21Z</time></trkpt><trkpt lat="44.17308388420511" lon="3.616819683087227"><ele>904.0</ele><time>2026-04-03T06:57:22Z</time></trkpt><trkpt lat="44.173123890772594" lon="3.617042008254487"><ele>904.0</ele><time>2026-04-03T06:57:23Z</time></trkpt><trkpt lat="44.17309176339573" lon="3.6172910174826636"><ele>901.6666666666666</ele><time>2026-04-03T06:57:24Z</time></trkpt><trkpt lat="44.17306800413781" lon="3.6175706798514597"><ele>899.3333333333333</ele><time>2026-04-03T06:57:25Z</time></trkpt><trkpt lat="44.173037192902086" lon="3.6178424608339874"><ele>897.0</ele><time>2026-04-03T06:57:26Z</time></trkpt><trkpt lat="44.173021065720434" lon="3.6180935855898504"><ele>892.0</ele><time>2026-04-03T06:57:27Z</time></trkpt><trkpt lat="44.17299123921064" lon="3.6183288379325917"><ele>887.0</ele><time>2026-04-03T06:57:28Z</time></trkpt><trkpt lat="44.17296495755821" lon="3.618548154700736"><ele>882.0</ele><time>2026-04-03T06:57:29Z</time></trkpt><trkpt lat="44.17294464988576" lon="3.6187139062462435"><ele>877.25</ele><time>2026-04-03T06:57:30Z</time></trkpt><trkpt lat="44.17291012440161" lon="3.618843870636182"><ele>872.5</ele><time>2026-04-03T06:57:31Z</time></trkpt><trkpt lat="44.17281604913534" lon="3.618917163651426"><ele>867.75</ele><time>2026-04-03T06:57:32Z</time></trkpt><trkpt lat="44.17269138942787" lon="3.6190099820938264"><ele>863.0</ele><time>2026-04-03T06:57:33Z</time></trkpt><trkpt lat="44.172542310734705" lon="3.619113231441428"><ele>863.0</ele><time>2026-04-03T06:57:34Z</time></trkpt><trkpt lat="44.17240729853604" lon="3.6192049839257656"><ele>863.0</ele><time>2026-04-03T06:57:35Z</time></trkpt><trkpt lat="44.172301468125575" lon="3.6192039458264467"><ele>863.0</ele><time>2026-04-03T06:57:36Z</time></trkpt><trkpt lat="44.17221751594264" lon="3.6191731856939913"><ele>863.0</ele><time>2026-04-03T06:57:37Z</time></trkpt><trkpt lat="44.17214379118798" lon="3.619107120341446"><ele>863.0</ele><time>2026-04-03T06:57:38Z</time></trkpt><trkpt lat="44.17210247118677" lon="3.6189671350341954"><ele>859.3333333333334</ele><time>2026-04-03T06:57:39Z</time></trkpt><trkpt lat="44.171995153371896" lon="3.6188334017134083"><ele>855.6666666666667</ele><time>2026-04-03T06:57:40Z</time></trkpt><trkpt lat="44.171851034629725" lon="3.618767678431949"><ele>852.0</ele><time>2026-04-03T06:57:41Z</time></trkpt><trkpt lat="44.17168586092599" lon="3.6187214947957096"><ele>848.0</ele><time>2026-04-03T06:57:42Z</time></trkpt><trkpt lat="44.17151429079931" lon="3.618665177762985"><ele>844.0</ele><time>2026-04-03T06:57:43Z</time></trkpt><trkpt lat="44.17137332089886" lon="3.6185641279453318"><ele>840.0</ele><time>2026-04-03T06:57:44Z</time></trkpt><trkpt lat="44.171243241750965" lon="3.6184456052679144"><ele>846.5</ele><time>2026-04-03T06:57:45Z</time></trkpt><trkpt lat="44.171128869538954" lon="3.618308883889701"><ele>853.0</ele><time>2026-04-03T06:57:46Z</time></trkpt><trkpt lat="44.17103004513292" lon="3.618196848909489"><ele>859.5</ele><time>2026-04-03T06:57:47Z</time></trkpt><trkpt lat="44.17094046878117" lon="3.6181349150087194"><ele>866.0</ele><time>2026-04-03T06:57:48Z</time></trkpt><trkpt lat="44.17082945187628" lon="3.6181824309562733"><ele>866.0</ele><time>2026-04-03T06:57:49Z</time></trkpt><trkpt lat="44.170730623775526" lon="3.6182589873730397"><ele>866.0</ele><time>2026-04-03T06:57:50Z</time></trkpt><trkpt lat="44.17064592159279" lon="3.618429988849124"><ele>866.0</ele><time>2026-04-03T06:57:51Z</time></trkpt><trkpt lat="44.17055858119678" lon="3.618646703490875"><ele>866.0</ele><time>2026-04-03T06:57:52Z</time></trkpt><trkpt lat="44.17045361355289" lon="3.618836686289048"><ele>865.0</ele><time>2026-04-03T06:57:53Z</time></trkpt><trkpt lat="44.17034547618648" lon="3.618951846260708"><ele>864.0</ele><time>2026-04-03T06:57:54Z</time></trkpt><trkpt lat="44.170198586290304" lon="3.618992017911087"><ele>863.0</ele><time>2026-04-03T06:57:55Z</time></trkpt><trkpt lat="44.170085252168306" lon="3.619117824029958"><ele>862.0</ele><time>2026-04-03T06:57:56Z</time></trkpt><trkpt lat="44.16998920558175" lon="3.6192934420128187"><ele>865.0</ele><time>2026-04-03T06:57:57Z</time></trkpt><trkpt lat="44.16989671478939" lon="3.619533668502109"><ele>868.0</ele><time>2026-04-03T06:57:58Z</time></trkpt><trkpt lat="44.16979875192441" lon="3.619794972305409"><ele>871.0</ele><time>2026-04-03T06:57:59Z</time></trkpt><trkpt lat="44.16968617261076" lon="3.6200465164263"><ele>871.0</ele><time>2026-04-03T06:58:00Z</time></trkpt><trkpt lat="44.16959691951057" lon="3.6202339470053606"><ele>871.0</ele><time>2026-04-03T06:58:01Z</time></trkpt><trkpt lat="44.16954729968467" lon="3.6204025682956518"><ele>871.0</ele><time>2026-04-03T06:58:02Z</time></trkpt><trkpt lat="44.16950161367149" lon="3.6205507009973448"><ele>871.0</ele><time>2026-04-03T06:58:03Z</time></trkpt><trkpt lat="44.16940054660965" lon="3.620606870962145"><ele>867.0</ele><time>2026-04-03T06:58:04Z</time></trkpt><trkpt lat="44.16927240144693" lon="3.6206746827166967"><ele>863.0</ele><time>2026-04-03T06:58:05Z</time></trkpt><trkpt lat="44.169155319912996" lon="3.620806519077702"><ele>859.0</ele><time>2026-04-03T06:58:06Z</time></trkpt><trkpt lat="44.16906099507521" lon="3.6209592577981833"><ele>855.0</ele><time>2026-04-03T06:58:07Z</time></trkpt><trkpt lat="44.1690045952919" lon="3.6211668926416896"><ele>855.0</ele><time>2026-04-03T06:58:08Z</time></trkpt><trkpt lat="44.16894204281088" lon="3.6214369475085277"><ele>855.0</ele><time>2026-04-03T06:58:09Z</time></trkpt><trkpt lat="44.16888717709538" lon="3.6217096881795188"><ele>855.0</ele><time>2026-04-03T06:58:10Z</time></trkpt><trkpt lat="44.16886262424559" lon="3.6219574508994548"><ele>850.75</ele><time>2026-04-03T06:58:11Z</time></trkpt><trkpt lat="44.16883963510743" lon="3.6221849448079597"><ele>846.5</ele><time>2026-04-03T06:58:12Z</time></trkpt><trkpt lat="44.16881896356066" lon="3.622397018282126"><ele>842.25</ele><time>2026-04-03T06:58:13Z</time></trkpt><trkpt lat="44.16879258187936" lon="3.62256309956413"><ele>838.0</ele><time>2026-04-03T06:58:14Z</time></trkpt><trkpt lat="44.16875717866034" lon="3.622731020542819"><ele>833.8</ele><time>2026-04-03T06:58:15Z</time></trkpt><trkpt lat="44.168703475792405" lon="3.6228790294925077"><ele>829.5999999999999</ele><time>2026-04-03T06:58:16Z</time></trkpt><trkpt lat="44.16862158166503" lon="3.6229775044805668"><ele>825.4000000000001</ele><time>2026-04-03T06:58:17Z</time></trkpt><trkpt lat="44.168513543501774" lon="3.623001555937691"><ele>821.2</ele><time>2026-04-03T06:58:18Z</time></trkpt><trkpt lat="44.16841605152272" lon="3.6229477070108334"><ele>817.0</ele><time>2026-04-03T06:58:19Z</time></trkpt><trkpt lat="44.16829211031902" lon="3.6228507814321254"><ele>821.3333333333333</ele><time>2026-04-03T06:58:20Z</time></trkpt><trkpt lat="44.16813317726606" lon="3.622749890520535"><ele>825.6666666666667</ele><time>2026-04-03T06:58:21Z</time></trkpt><trkpt lat="44.167992520453076" lon="3.622651306423262"><ele>830.0</ele><time>2026-04-03T06:58:22Z</time></trkpt><trkpt lat="44.16788759460312" lon="3.622530105444466"><ele>830.0</ele><time>2026-04-03T06:58:23Z</time></trkpt><trkpt lat="44.167815649958236" lon="3.622372118177322"><ele>830.0</ele><time>2026-04-03T06:58:24Z</time></trkpt><trkpt lat="44.16773962185724" lon="3.6222416973339935"><ele>830.0</ele><time>2026-04-03T06:58:25Z</time></trkpt><trkpt lat="44.167656387376724" lon="3.6221547510496057"><ele>830.0</ele><time>2026-04-03T06:58:26Z</time></trkpt><trkpt lat="44.16753777790867" lon="3.6221739406846942"><ele>830.0</ele><time>2026-04-03T06:58:27Z</time></trkpt><trkpt lat="44.16743745375761" lon="3.622254040292471"><ele>830.0</ele><time>2026-04-03T06:58:28Z</time></trkpt><trkpt lat="44.16733962813095" lon="3.6223832794134143"><ele>830.0</ele><time>2026-04-03T06:58:29Z</time></trkpt><trkpt lat="44.167238270591064" lon="3.6225856429728145"><ele>830.0</ele><time>2026-04-03T06:58:30Z</time></trkpt><trkpt lat="44.167140190093164" lon="3.6227544067152353"><ele>828.5</ele><time>2026-04-03T06:58:31Z</time></trkpt><trkpt lat="44.16704246076212" lon="3.622887968719762"><ele>827.0</ele><time>2026-04-03T06:58:32Z</time></trkpt><trkpt lat="44.16694079683382" lon="3.6229678568556345"><ele>825.5</ele><time>2026-04-03T06:58:33Z</time></trkpt><trkpt lat="44.16683837352209" lon="3.6229409682649605"><ele>824.0</ele><time>2026-04-03T06:58:34Z</time></trkpt><trkpt lat="44.166725620800804" lon="3.622968256604423"><ele>824.0</ele><time>2026-04-03T06:58:35Z</time></trkpt><trkpt lat="44.16662059490393" lon="3.6230203138342136"><ele>824.0</ele><time>2026-04-03T06:58:36Z</time></trkpt><trkpt lat="44.16656117320806" lon="3.6231659332162804"><ele>824.0</ele><time>2026-04-03T06:58:37Z</time></trkpt><trkpt lat="44.16655011700297" lon="3.623367828469933"><ele>824.0</ele><time>2026-04-03T06:58:38Z</time></trkpt><trkpt lat="44.16655042292735" lon="3.6235901060554867"><ele>828.0</ele><time>2026-04-03T06:58:39Z</time></trkpt><trkpt lat="44.1665120383451" lon="3.623797951383862"><ele>832.0</ele><time>2026-04-03T06:58:40Z</time></trkpt><trkpt lat="44.16641270842792" lon="3.6240304351207855"><ele>836.0</ele><time>2026-04-03T06:58:41Z</time></trkpt><trkpt lat="44.16630205639837" lon="3.624277952103433"><ele>828.6666666666667</ele><time>2026-04-03T06:58:42Z</time></trkpt><trkpt lat="44.166205037702646" lon="3.624493790047811"><ele>821.3333333333333</ele><time>2026-04-03T06:58:43Z</time></trkpt><trkpt lat="44.16611066022931" lon="3.624692740274039"><ele>814.0</ele><time>2026-04-03T06:58:44Z</time></trkpt><trkpt lat="44.166006802160645" lon="3.6248601722304996"><ele>814.0</ele><time>2026-04-03T06:58:45Z</time></trkpt><trkpt lat="44.165867861836375" lon="3.62496899852766"><ele>814.0</ele><time>2026-04-03T06:58:46Z</time></trkpt><trkpt lat="44.165697860888" lon="3.6250852009841004"><ele>814.0</ele><time>2026-04-03T06:58:47Z</time></trkpt><trkpt lat="44.16551784337823" lon="3.6252151714742205"><ele>808.0</ele><time>2026-04-03T06:58:48Z</time></trkpt><trkpt lat="44.16534050952455" lon="3.6253335151033146"><ele>802.0</ele><time>2026-04-03T06:58:49Z</time></trkpt><trkpt lat="44.165178975605635" lon="3.625440956031577"><ele>796.0</ele><time>2026-04-03T06:58:50Z</time></trkpt><trkpt lat="44.1650355785821" lon="3.6255422489376614"><ele>796.0</ele><time>2026-04-03T06:58:51Z</time></trkpt><trkpt lat="44.16490404251257" lon="3.6256310739481723"><ele>796.0</ele><time>2026-04-03T06:58:52Z</time></trkpt><trkpt lat="44.16479752952645" lon="3.625691780613813"><ele>796.0</ele><time>2026-04-03T06:58:53Z</time></trkpt><trkpt lat="44.16473184286348" lon="3.6257087243195962"><ele>796.0</ele><time>2026-04-03T06:58:54Z</time></trkpt><trkpt lat="44.16464723516002" lon="3.625706859285103"><ele>796.0</ele><time>2026-04-03T06:58:56Z</time></trkpt><trkpt lat="44.16469436621561" lon="3.6258495759880223"><ele>796.0</ele><time>2026-04-03T06:58:59Z</time></trkpt><trkpt lat="44.164793144418105" lon="3.6258408290112705"><ele>796.0</ele><time>2026-04-03T06:59:00Z</time></trkpt><trkpt lat="44.16488515153264" lon="3.6257686810280276"><ele>796.0</ele><time>2026-04-03T06:59:01Z</time></trkpt><trkpt lat="44.16500414284848" lon="3.6256923382988053"><ele>796.0</ele><time>2026-04-03T06:59:02Z</time></trkpt><trkpt lat="44.16513545646553" lon="3.625659246254825"><ele>796.0</ele><time>2026-04-03T06:59:03Z</time></trkpt><trkpt lat="44.16527503727981" lon="3.6256807420973987"><ele>796.0</ele><time>2026-04-03T06:59:04Z</time></trkpt><trkpt lat="44.165418633757874" lon="3.6256815240267857"><ele>796.0</ele><time>2026-04-03T06:59:05Z</time></trkpt><trkpt lat="44.16557984723379" lon="3.625632127402478"><ele>796.0</ele><time>2026-04-03T06:59:06Z</time></trkpt><trkpt lat="44.16573236780823" lon="3.6255559094116867"><ele>793.0</ele><time>2026-04-03T06:59:07Z</time></trkpt><trkpt lat="44.165889068053254" lon="3.6254951329596263"><ele>790.0</ele><time>2026-04-03T06:59:08Z</time></trkpt><trkpt lat="44.166052351983495" lon="3.625454341813437"><ele>787.0</ele><time>2026-04-03T06:59:09Z</time></trkpt><trkpt lat="44.166197971574675" lon="3.6254105252449498"><ele>787.0</ele><time>2026-04-03T06:59:10Z</time></trkpt><trkpt lat="44.166328961936635" lon="3.625341081580361"><ele>787.0</ele><time>2026-04-03T06:59:11Z</time></trkpt><trkpt lat="44.16644197742097" lon="3.6252263252112735"><ele>787.0</ele><time>2026-04-03T06:59:12Z</time></trkpt><trkpt lat="44.1665478230349" lon="3.6250745002839437"><ele>787.0</ele><time>2026-04-03T06:59:13Z</time></trkpt><trkpt lat="44.166678375242235" lon="3.624928777267961"><ele>787.0</ele><time>2026-04-03T06:59:14Z</time></trkpt><trkpt lat="44.166798067168486" lon="3.6247574120778805"><ele>787.0</ele><time>2026-04-03T06:59:15Z</time></trkpt><trkpt lat="44.16691613983147" lon="3.6246006028467517"><ele>787.0</ele><time>2026-04-03T06:59:16Z</time></trkpt><trkpt lat="44.16701466122277" lon="3.6244623196312102"><ele>789.8</ele><time>2026-04-03T06:59:17Z</time></trkpt><trkpt lat="44.167091270331376" lon="3.6243268874968875"><ele>792.6</ele><time>2026-04-03T06:59:18Z</time></trkpt><trkpt lat="44.167141749464534" lon="3.62419287774903"><ele>795.4</ele><time>2026-04-03T06:59:19Z</time></trkpt><trkpt lat="44.16718347260226" lon="3.6240629659860026"><ele>798.1999999999999</ele><time>2026-04-03T06:59:20Z</time></trkpt><trkpt lat="44.167213947920345" lon="3.6239772245854662"><ele>801.0</ele><time>2026-04-03T06:59:21Z</time></trkpt><trkpt lat="44.16728360482451" lon="3.62389969171023"><ele>797.0</ele><time>2026-04-03T06:59:23Z</time></trkpt><trkpt lat="44.16736373805382" lon="3.623881096826114"><ele>793.0</ele><time>2026-04-03T07:00:53Z</time></trkpt><trkpt lat="44.16742430709905" lon="3.6238494303995625"><ele>789.0</ele><time>2026-04-03T07:00:54Z</time></trkpt><trkpt lat="44.16750768568488" lon="3.623821148084451"><ele>785.0</ele><time>2026-04-03T07:00:55Z</time></trkpt><trkpt lat="44.167579015311375" lon="3.623767320956417"><ele>781.0</ele><time>2026-04-03T07:00:56Z</time></trkpt><trkpt lat="44.16764006320891" lon="3.623737046093876"><ele>777.0</ele><time>2026-04-03T07:00:57Z</time></trkpt><trkpt lat="44.167708167046435" lon="3.6237461203456216"><ele>773.0</ele><time>2026-04-03T07:00:58Z</time></trkpt><trkpt lat="44.16778038162786" lon="3.6238144239396357"><ele>773.0</ele><time>2026-04-03T07:00:59Z</time></trkpt><trkpt lat="44.1678492219489" lon="3.6239269091595445"><ele>773.0</ele><time>2026-04-03T07:01:00Z</time></trkpt><trkpt lat="44.167896696503774" lon="3.6240015234603598"><ele>773.0</ele><time>2026-04-03T07:01:01Z</time></trkpt><trkpt lat="44.16790902165891" lon="3.624152332392985"><ele>773.0</ele><time>2026-04-03T07:01:02Z</time></trkpt><trkpt lat="44.167950128710714" lon="3.6242958761252715"><ele>773.0</ele><time>2026-04-03T07:01:03Z</time></trkpt><trkpt lat="44.16798501031893" lon="3.6244714329342047"><ele>767.75</ele><time>2026-04-03T07:01:04Z</time></trkpt><trkpt lat="44.168037461943975" lon="3.6246433530519258"><ele>762.5</ele><time>2026-04-03T07:01:05Z</time></trkpt><trkpt lat="44.16808958087415" lon="3.6248150619064994"><ele>757.25</ele><time>2026-04-03T07:01:06Z</time></trkpt><trkpt lat="44.16813802343115" lon="3.6249701558638594"><ele>752.0</ele><time>2026-04-03T07:01:07Z</time></trkpt><trkpt lat="44.16818314932482" lon="3.625096519140551"><ele>755.0</ele><time>2026-04-03T07:01:08Z</time></trkpt><trkpt lat="44.168241013858534" lon="3.625196122645067"><ele>758.0</ele><time>2026-04-03T07:01:09Z</time></trkpt><trkpt lat="44.16832693423907" lon="3.625241902118461"><ele>761.0</ele><time>2026-04-03T07:01:10Z</time></trkpt><trkpt lat="44.16843396124138" lon="3.6252829787378844"><ele>764.0</ele><time>2026-04-03T07:01:11Z</time></trkpt><trkpt lat="44.16857252896775" lon="3.6253503627660137"><ele>767.0</ele><time>2026-04-03T07:01:12Z</time></trkpt><trkpt lat="44.16872296178581" lon="3.625400056270688"><ele>763.0</ele><time>2026-04-03T07:01:13Z</time></trkpt><trkpt lat="44.16886916844406" lon="3.6254521671996214"><ele>759.0</ele><time>2026-04-03T07:01:14Z</time></trkpt><trkpt lat="44.169010279979325" lon="3.625509787713311"><ele>755.0</ele><time>2026-04-03T07:01:15Z</time></trkpt><trkpt lat="44.1691439222771" lon="3.6255903185285567"><ele>751.0</ele><time>2026-04-03T07:01:16Z</time></trkpt><trkpt lat="44.169256635018066" lon="3.625727328254692"><ele>751.0</ele><time>2026-04-03T07:01:17Z</time></trkpt><trkpt lat="44.1693698934298" lon="3.6258607698898477"><ele>751.0</ele><time>2026-04-03T07:01:18Z</time></trkpt><trkpt lat="44.16950363873408" lon="3.625955245578519"><ele>751.0</ele><time>2026-04-03T07:01:19Z</time></trkpt><trkpt lat="44.169625805546666" lon="3.62605625122054"><ele>751.0</ele><time>2026-04-03T07:01:20Z</time></trkpt><trkpt lat="44.16974785430139" lon="3.6261415162202173"><ele>744.75</ele><time>2026-04-03T07:01:21Z</time></trkpt><trkpt lat="44.169863664478456" lon="3.6262119691518424"><ele>738.5</ele><time>2026-04-03T07:01:22Z</time></trkpt><trkpt lat="44.16999237092832" lon="3.6262550990217015"><ele>732.25</ele><time>2026-04-03T07:01:23Z</time></trkpt><trkpt lat="44.17013680665085" lon="3.6262705485452518"><ele>726.0</ele><time>2026-04-03T07:01:24Z</time></trkpt><trkpt lat="44.170279315131516" lon="3.6262889658658946"><ele>726.0</ele><time>2026-04-03T07:01:25Z</time></trkpt><trkpt lat="44.170407875784704" lon="3.626306250821084"><ele>726.0</ele><time>2026-04-03T07:01:26Z</time></trkpt><trkpt lat="44.170523473992205" lon="3.626323270651148"><ele>726.0</ele><time>2026-04-03T07:01:27Z</time></trkpt><trkpt lat="44.17064155371292" lon="3.6262973672615297"><ele>726.0</ele><time>2026-04-03T07:01:28Z</time></trkpt><trkpt lat="44.17077237698425" lon="3.6261992012113877"><ele>730.75</ele><time>2026-04-03T07:01:29Z</time></trkpt><trkpt lat="44.17090980397824" lon="3.6260718870283957"><ele>735.5</ele><time>2026-04-03T07:01:30Z</time></trkpt><trkpt lat="44.17105296426546" lon="3.62597655187915"><ele>740.25</ele><time>2026-04-03T07:01:31Z</time></trkpt><trkpt lat="44.1711469054008" lon="3.6258926510396607"><ele>745.0</ele><time>2026-04-03T07:01:32Z</time></trkpt><trkpt lat="44.17123310814926" lon="3.6258119361702623"><ele>745.0</ele><time>2026-04-03T07:01:33Z</time></trkpt><trkpt lat="44.171296593064895" lon="3.625695415229728"><ele>745.0</ele><time>2026-04-03T07:01:34Z</time></trkpt><trkpt lat="44.17132922226148" lon="3.6255313629054453"><ele>745.0</ele><time>2026-04-03T07:01:35Z</time></trkpt><trkpt lat="44.17133700753376" lon="3.625324275789751"><ele>745.0</ele><time>2026-04-03T07:01:36Z</time></trkpt><trkpt lat="44.17134607013664" lon="3.625113785105551"><ele>746.75</ele><time>2026-04-03T07:01:37Z</time></trkpt><trkpt lat="44.17135076917705" lon="3.6249327260047313"><ele>748.5</ele><time>2026-04-03T07:01:38Z</time></trkpt><trkpt lat="44.17132961041823" lon="3.6247630916875337"><ele>750.25</ele><time>2026-04-03T07:01:39Z</time></trkpt><trkpt lat="44.17128698542854" lon="3.624613225900424"><ele>752.0</ele><time>2026-04-03T07:01:40Z</time></trkpt><trkpt lat="44.171244818746885" lon="3.6244920125787035"><ele>752.0</ele><time>2026-04-03T07:01:41Z</time></trkpt><trkpt lat="44.171207637273156" lon="3.624397700972589"><ele>752.0</ele><time>2026-04-03T07:01:42Z</time></trkpt><trkpt lat="44.17119574744053" lon="3.624303304099604"><ele>752.0</ele><time>2026-04-03T07:01:44Z</time></trkpt><trkpt lat="44.171260158719214" lon="3.6243466474941846"><ele>752.0</ele><time>2026-04-03T07:01:46Z</time></trkpt><trkpt lat="44.17127315273341" lon="3.624437920308175"><ele>752.0</ele><time>2026-04-03T07:01:47Z</time></trkpt><trkpt lat="44.171339732707516" lon="3.624544078658755"><ele>752.0</ele><time>2026-04-03T07:01:48Z</time></trkpt><trkpt lat="44.171404789560796" lon="3.624703862362431"><ele>752.0</ele><time>2026-04-03T07:01:49Z</time></trkpt><trkpt lat="44.17147629999862" lon="3.6248970922653783"><ele>752.0</ele><time>2026-04-03T07:01:50Z</time></trkpt><trkpt lat="44.17153775583721" lon="3.625112316634038"><ele>752.0</ele><time>2026-04-03T07:01:51Z</time></trkpt><trkpt lat="44.1715817226315" lon="3.625314769070948"><ele>742.25</ele><time>2026-04-03T07:01:52Z</time></trkpt><trkpt lat="44.1716197070886" lon="3.6254877620058448"><ele>732.5</ele><time>2026-04-03T07:01:53Z</time></trkpt><trkpt lat="44.171638137381606" lon="3.6256460441328646"><ele>722.75</ele><time>2026-04-03T07:01:54Z</time></trkpt><trkpt lat="44.17160875256186" lon="3.6258052750249616"><ele>713.0</ele><time>2026-04-03T07:01:55Z</time></trkpt><trkpt lat="44.171558761552845" lon="3.625966656033317"><ele>714.5</ele><time>2026-04-03T07:01:56Z</time></trkpt><trkpt lat="44.171488212818446" lon="3.626134580741341"><ele>716.0</ele><time>2026-04-03T07:01:57Z</time></trkpt><trkpt lat="44.17140319591053" lon="3.626293194879007"><ele>717.5</ele><time>2026-04-03T07:01:58Z</time></trkpt><trkpt lat="44.17130815604597" lon="3.626440389606498"><ele>719.0</ele><time>2026-04-03T07:01:59Z</time></trkpt><trkpt lat="44.17120863809838" lon="3.6265671787980787"><ele>719.0</ele><time>2026-04-03T07:02:00Z</time></trkpt><trkpt lat="44.171117970025826" lon="3.6267042783402132"><ele>719.0</ele><time>2026-04-03T07:02:01Z</time></trkpt><trkpt lat="44.17102212178483" lon="3.6268098694125483"><ele>719.0</ele><time>2026-04-03T07:02:02Z</time></trkpt><trkpt lat="44.17091394265089" lon="3.626866291898531"><ele>719.0</ele><time>2026-04-03T07:02:03Z</time></trkpt><trkpt lat="44.17080084967635" lon="3.6269306160483143"><ele>714.4000000000001</ele><time>2026-04-03T07:02:04Z</time></trkpt><trkpt lat="44.1706965389206" lon="3.62698006022846"><ele>709.8</ele><time>2026-04-03T07:02:05Z</time></trkpt><trkpt lat="44.17060245905948" lon="3.6270130032572"><ele>705.2</ele><time>2026-04-03T07:02:06Z</time></trkpt><trkpt lat="44.1704921314831" lon="3.6270735102950766"><ele>700.5999999999999</ele><time>2026-04-03T07:02:08Z</time></trkpt><trkpt lat="44.170500551742684" lon="3.627200121813167"><ele>696.0</ele><time>2026-04-03T07:02:11Z</time></trkpt><trkpt lat="44.17059316263919" lon="3.627185501483899"><ele>696.0</ele><time>2026-04-03T07:02:12Z</time></trkpt><trkpt lat="44.170671679223915" lon="3.627127420937881"><ele>696.0</ele><time>2026-04-03T07:02:13Z</time></trkpt><trkpt lat="44.170769266577366" lon="3.627067707991171"><ele>696.0</ele><time>2026-04-03T07:02:14Z</time></trkpt><trkpt lat="44.17088612571709" lon="3.6270780294213307"><ele>696.0</ele><time>2026-04-03T07:02:15Z</time></trkpt><trkpt lat="44.171013195100954" lon="3.6270613666408216"><ele>696.0</ele><time>2026-04-03T07:02:16Z</time></trkpt><trkpt lat="44.17114508905448" lon="3.6270416375066987"><ele>696.25</ele><time>2026-04-03T07:02:17Z</time></trkpt><trkpt lat="44.17127138057197" lon="3.626987503554552"><ele>696.5</ele><time>2026-04-03T07:02:18Z</time></trkpt><trkpt lat="44.17140142826002" lon="3.6269135193414814"><ele>696.75</ele><time>2026-04-03T07:02:19Z</time></trkpt><trkpt lat="44.171532105516285" lon="3.626855432234689"><ele>697.0</ele><time>2026-04-03T07:02:20Z</time></trkpt><trkpt lat="44.171660213394595" lon="3.6268063703481332"><ele>697.0</ele><time>2026-04-03T07:02:21Z</time></trkpt><trkpt lat="44.17177758615441" lon="3.626752831835044"><ele>697.0</ele><time>2026-04-03T07:02:22Z</time></trkpt><trkpt lat="44.17190125459989" lon="3.6266666144784683"><ele>697.0</ele><time>2026-04-03T07:02:23Z</time></trkpt><trkpt lat="44.17202475643689" lon="3.626542016138848"><ele>697.0</ele><time>2026-04-03T07:02:24Z</time></trkpt><trkpt lat="44.17214174254394" lon="3.626407130489987"><ele>697.0</ele><time>2026-04-03T07:02:25Z</time></trkpt><trkpt lat="44.17226034545924" lon="3.6262792987599783"><ele>697.0</ele><time>2026-04-03T07:02:26Z</time></trkpt><trkpt lat="44.17236122940132" lon="3.6261625299774383"><ele>697.0</ele><time>2026-04-03T07:02:27Z</time></trkpt><trkpt lat="44.1724431135944" lon="3.6260353560606564"><ele>697.0</ele><time>2026-04-03T07:02:28Z</time></trkpt><trkpt lat="44.17248985256585" lon="3.625873845204007"><ele>692.75</ele><time>2026-04-03T07:02:29Z</time></trkpt><trkpt lat="44.172502902194125" lon="3.6256984075933567"><ele>688.5</ele><time>2026-04-03T07:02:30Z</time></trkpt><trkpt lat="44.17248961348967" lon="3.625514839730783"><ele>684.25</ele><time>2026-04-03T07:02:31Z</time></trkpt><trkpt lat="44.172454159329945" lon="3.6253158125498235"><ele>680.0</ele><time>2026-04-03T07:02:32Z</time></trkpt><trkpt lat="44.172437549647505" lon="3.625116259200793"><ele>678.4</ele><time>2026-04-03T07:02:33Z</time></trkpt><trkpt lat="44.17241033080247" lon="3.624940654222241"><ele>676.8</ele><time>2026-04-03T07:02:34Z</time></trkpt><trkpt lat="44.17236542419266" lon="3.6248129874458295"><ele>675.2</ele><time>2026-04-03T07:02:35Z</time></trkpt><trkpt lat="44.17229830294853" lon="3.6247070441166036"><ele>673.6</ele><time>2026-04-03T07:02:36Z</time></trkpt><trkpt lat="44.172227531749705" lon="3.6245942115167686"><ele>672.0</ele><time>2026-04-03T07:02:37Z</time></trkpt><trkpt lat="44.17216919556806" lon="3.624480906052243"><ele>672.3333333333334</ele><time>2026-04-03T07:02:38Z</time></trkpt><trkpt lat="44.17213458209685" lon="3.6243652323963125"><ele>672.6666666666666</ele><time>2026-04-03T07:02:39Z</time></trkpt><trkpt lat="44.1721222135262" lon="3.6242552962400074"><ele>673.0</ele><time>2026-04-03T07:02:40Z</time></trkpt><trkpt lat="44.172132956004724" lon="3.624159240603012"><ele>673.3333333333333</ele><time>2026-04-03T07:02:41Z</time></trkpt><trkpt lat="44.172215808257356" lon="3.6240443278776846"><ele>673.6666666666666</ele><time>2026-04-03T07:02:43Z</time></trkpt><trkpt lat="44.172290010519774" lon="3.6240549863173372"><ele>674.0</ele><time>2026-04-03T07:02:44Z</time></trkpt><trkpt lat="44.17237530803491" lon="3.6241021024376745"><ele>674.0</ele><time>2026-04-03T07:02:45Z</time></trkpt><trkpt lat="44.172488148474926" lon="3.6241523513546605"><ele>674.0</ele><time>2026-04-03T07:02:46Z</time></trkpt><trkpt lat="44.17262063793747" lon="3.6241575377525392"><ele>674.0</ele><time>2026-04-03T07:02:47Z</time></trkpt><trkpt lat="44.17275990785169" lon="3.6241342466092634"><ele>674.0</ele><time>2026-04-03T07:02:48Z</time></trkpt><trkpt lat="44.172897166946626" lon="3.6240900538578864"><ele>674.0</ele><time>2026-04-03T07:02:49Z</time></trkpt><trkpt lat="44.17302845721596" lon="3.624045910978494"><ele>674.0</ele><time>2026-04-03T07:02:50Z</time></trkpt><trkpt lat="44.17314738664481" lon="3.6240228002089023"><ele>674.0</ele><time>2026-04-03T07:02:51Z</time></trkpt><trkpt lat="44.17325644152347" lon="3.624071137951015"><ele>674.0</ele><time>2026-04-03T07:02:52Z</time></trkpt><trkpt lat="44.17335212619615" lon="3.624166317886844"><ele>672.0</ele><time>2026-04-03T07:02:53Z</time></trkpt><trkpt lat="44.17348046286223" lon="3.624251233927709"><ele>670.0</ele><time>2026-04-03T07:02:54Z</time></trkpt><trkpt lat="44.1736163585202" lon="3.6243709776712354"><ele>668.0</ele><time>2026-04-03T07:02:55Z</time></trkpt><trkpt lat="44.173752933701515" lon="3.6244721887646505"><ele>663.5</ele><time>2026-04-03T07:02:56Z</time></trkpt><trkpt lat="44.17388431129771" lon="3.6245665465934027"><ele>659.0</ele><time>2026-04-03T07:02:57Z</time></trkpt><trkpt lat="44.174012033180404" lon="3.6246697532300516"><ele>654.5</ele><time>2026-04-03T07:02:58Z</time></trkpt><trkpt lat="44.17412872251292" lon="3.6247784954262463"><ele>650.0</ele><time>2026-04-03T07:02:59Z</time></trkpt><trkpt lat="44.17424711064323" lon="3.6248872141807116"><ele>650.0</ele><time>2026-04-03T07:03:00Z</time></trkpt><trkpt lat="44.17435473546982" lon="3.6250079872177294"><ele>650.0</ele><time>2026-04-03T07:03:01Z</time></trkpt><trkpt lat="44.17444583528337" lon="3.6251542084439974"><ele>650.0</ele><time>2026-04-03T07:03:02Z</time></trkpt><trkpt lat="44.17453231660685" lon="3.6253001688969135"><ele>650.0</ele><time>2026-04-03T07:03:03Z</time></trkpt><trkpt lat="44.174625921864134" lon="3.625437461866407"><ele>644.5</ele><time>2026-04-03T07:03:04Z</time></trkpt><trkpt lat="44.17472587581062" lon="3.6255330172718176"><ele>639.0</ele><time>2026-04-03T07:03:05Z</time></trkpt><trkpt lat="44.17484504172736" lon="3.625578049857785"><ele>633.5</ele><time>2026-04-03T07:03:06Z</time></trkpt><trkpt lat="44.17497827333028" lon="3.625596065819605"><ele>628.0</ele><time>2026-04-03T07:03:07Z</time></trkpt><trkpt lat="44.175103934898445" lon="3.6255922501225957"><ele>628.0</ele><time>2026-04-03T07:03:08Z</time></trkpt><trkpt lat="44.17520687673038" lon="3.6255899099859747"><ele>628.0</ele><time>2026-04-03T07:03:09Z</time></trkpt><trkpt lat="44.175298227132316" lon="3.62555436563557"><ele>628.0</ele><time>2026-04-03T07:03:10Z</time></trkpt><trkpt lat="44.175382411480335" lon="3.625471819079068"><ele>628.0</ele><time>2026-04-03T07:03:11Z</time></trkpt><trkpt lat="44.17543744787115" lon="3.6253381398794002"><ele>628.0</ele><time>2026-04-03T07:03:12Z</time></trkpt><trkpt lat="44.175460100085026" lon="3.6251858471120473"><ele>630.1999999999999</ele><time>2026-04-03T07:03:13Z</time></trkpt><trkpt lat="44.17546054321507" lon="3.625029010320418"><ele>632.4</ele><time>2026-04-03T07:03:14Z</time></trkpt><trkpt lat="44.17547993636858" lon="3.6249009895139817"><ele>634.5999999999999</ele><time>2026-04-03T07:03:15Z</time></trkpt><trkpt lat="44.1755559813335" lon="3.624805992172759"><ele>636.8</ele><time>2026-04-03T07:03:16Z</time></trkpt><trkpt lat="44.17564471415439" lon="3.624743686492587"><ele>639.0</ele><time>2026-04-03T07:03:17Z</time></trkpt><trkpt lat="44.17574893980137" lon="3.624743138202091"><ele>639.0</ele><time>2026-04-03T07:03:18Z</time></trkpt><trkpt lat="44.175854180064896" lon="3.6247428935417774"><ele>639.0</ele><time>2026-04-03T07:03:19Z</time></trkpt><trkpt lat="44.17594553797439" lon="3.6248028222249977"><ele>639.0</ele><time>2026-04-03T07:03:20Z</time></trkpt><trkpt lat="44.17601173663958" lon="3.6249318517847477"><ele>639.0</ele><time>2026-04-03T07:03:22Z</time></trkpt><trkpt lat="44.17597745024973" lon="3.6250651983489033"><ele>639.0</ele><time>2026-04-03T07:03:23Z</time></trkpt><trkpt lat="44.17596776712485" lon="3.625215595955484"><ele>635.5</ele><time>2026-04-03T07:03:24Z</time></trkpt><trkpt lat="44.17596794607098" lon="3.6254000370238897"><ele>632.0</ele><time>2026-04-03T07:03:25Z</time></trkpt><trkpt lat="44.17594146074792" lon="3.62560267380738"><ele>628.5</ele><time>2026-04-03T07:03:26Z</time></trkpt><trkpt lat="44.175924592912594" lon="3.6257675792096484"><ele>625.0</ele><time>2026-04-03T07:03:27Z</time></trkpt><trkpt lat="44.175913391567" lon="3.625908598864928"><ele>625.0</ele><time>2026-04-03T07:03:28Z</time></trkpt><trkpt lat="44.17593050218225" lon="3.62605240364772"><ele>625.0</ele><time>2026-04-03T07:03:29Z</time></trkpt><trkpt lat="44.17597230433457" lon="3.626189322117034"><ele>625.0</ele><time>2026-04-03T07:03:30Z</time></trkpt><trkpt lat="44.17603683013289" lon="3.6262817491625006"><ele>625.0</ele><time>2026-04-03T07:03:31Z</time></trkpt><trkpt lat="44.17612567931474" lon="3.62634963017956"><ele>625.0</ele><time>2026-04-03T07:03:32Z</time></trkpt><trkpt lat="44.17624002489769" lon="3.6263842128356374"><ele>623.8</ele><time>2026-04-03T07:03:33Z</time></trkpt><trkpt lat="44.17635190113204" lon="3.626373050525841"><ele>622.6</ele><time>2026-04-03T07:03:34Z</time></trkpt><trkpt lat="44.17645230941237" lon="3.6263066671659967"><ele>621.4</ele><time>2026-04-03T07:03:35Z</time></trkpt><trkpt lat="44.17654653252897" lon="3.6262215199333343"><ele>620.2</ele><time>2026-04-03T07:03:36Z</time></trkpt><trkpt lat="44.17663925943674" lon="3.6261404210356014"><ele>619.0</ele><time>2026-04-03T07:03:37Z</time></trkpt><trkpt lat="44.176721153786694" lon="3.6260777696829756"><ele>619.0</ele><time>2026-04-03T07:03:38Z</time></trkpt><trkpt lat="44.176793664069024" lon="3.6260558917849863"><ele>619.0</ele><time>2026-04-03T07:03:39Z</time></trkpt><trkpt lat="44.17689221202356" lon="3.626114009797998"><ele>619.0</ele><time>2026-04-03T07:03:41Z</time></trkpt><trkpt lat="44.176895867467316" lon="3.6263056843628227"><ele>619.0</ele><time>2026-04-03T07:03:43Z</time></trkpt><trkpt lat="44.17686876820709" lon="3.62642263141442"><ele>619.0</ele><time>2026-04-03T07:03:44Z</time></trkpt><trkpt lat="44.17681185182883" lon="3.6264983097038916"><ele>619.0</ele><time>2026-04-03T07:03:45Z</time></trkpt><trkpt lat="44.176743817003526" lon="3.6265402758680354"><ele>619.0</ele><time>2026-04-03T07:03:46Z</time></trkpt><trkpt lat="44.17663931904792" lon="3.6265045549278643"><ele>619.0</ele><time>2026-04-03T07:03:47Z</time></trkpt><trkpt lat="44.176547477835754" lon="3.6265815609441736"><ele>619.0</ele><time>2026-04-03T07:03:48Z</time></trkpt><trkpt lat="44.176470874284945" lon="3.6266741247962"><ele>619.0</ele><time>2026-04-03T07:03:49Z</time></trkpt><trkpt lat="44.17642656173316" lon="3.626797654772502"><ele>617.4</ele><time>2026-04-03T07:03:50Z</time></trkpt><trkpt lat="44.17636424418694" lon="3.6269067358824736"><ele>615.8</ele><time>2026-04-03T07:03:51Z</time></trkpt><trkpt lat="44.17627055573696" lon="3.626906007826179"><ele>614.2</ele><time>2026-04-03T07:03:52Z</time></trkpt><trkpt lat="44.176186970203034" lon="3.626945127547235"><ele>612.6</ele><time>2026-04-03T07:03:53Z</time></trkpt><trkpt lat="44.17609052320294" lon="3.6270133779486926"><ele>611.0</ele><time>2026-04-03T07:03:54Z</time></trkpt><trkpt lat="44.17596905053985" lon="3.6270086551809166"><ele>612.25</ele><time>2026-04-03T07:03:55Z</time></trkpt><trkpt lat="44.175838710781555" lon="3.627007776594943"><ele>613.5</ele><time>2026-04-03T07:03:56Z</time></trkpt><trkpt lat="44.17570141932202" lon="3.627008506754803"><ele>614.75</ele><time>2026-04-03T07:03:57Z</time></trkpt><trkpt lat="44.17556503014501" lon="3.6270067710009015"><ele>616.0</ele><time>2026-04-03T07:03:58Z</time></trkpt><trkpt lat="44.175423656014125" lon="3.627018351966927"><ele>616.0</ele><time>2026-04-03T07:03:59Z</time></trkpt><trkpt lat="44.175289682253016" lon="3.627037314269937"><ele>616.0</ele><time>2026-04-03T07:04:00Z</time></trkpt><trkpt lat="44.17515387853444" lon="3.627055942497552"><ele>616.0</ele><time>2026-04-03T07:04:01Z</time></trkpt><trkpt lat="44.17502928800283" lon="3.627071285002646"><ele>616.0</ele><time>2026-04-03T07:04:02Z</time></trkpt><trkpt lat="44.17491393902017" lon="3.6270854894482185"><ele>612.3333333333334</ele><time>2026-04-03T07:04:03Z</time></trkpt><trkpt lat="44.174817136325785" lon="3.6271201724718938"><ele>608.6666666666667</ele><time>2026-04-03T07:04:04Z</time></trkpt><trkpt lat="44.17472724301894" lon="3.6271350758356684"><ele>605.0</ele><time>2026-04-03T07:04:05Z</time></trkpt><trkpt lat="44.17465065648717" lon="3.6271385287140268"><ele>601.3333333333334</ele><time>2026-04-03T07:04:06Z</time></trkpt><trkpt lat="44.17458933213496" lon="3.6272002479425858"><ele>597.6666666666666</ele><time>2026-04-03T07:04:07Z</time></trkpt><trkpt lat="44.174531947508385" lon="3.627253899912563"><ele>594.0</ele><time>2026-04-03T07:04:08Z</time></trkpt><trkpt lat="44.17448359764953" lon="3.627313876663302"><ele>594.0</ele><time>2026-04-03T07:04:09Z</time></trkpt><trkpt lat="44.174434019763424" lon="3.627378461569789"><ele>594.0</ele><time>2026-04-03T07:04:10Z</time></trkpt><trkpt lat="44.174380013501306" lon="3.627491277314244"><ele>594.0</ele><time>2026-04-03T07:04:11Z</time></trkpt><trkpt lat="44.17434011205567" lon="3.6276268563541874"><ele>594.0</ele><time>2026-04-03T07:04:12Z</time></trkpt><trkpt lat="44.17429761999314" lon="3.627780470912358"><ele>594.0</ele><time>2026-04-03T07:04:13Z</time></trkpt><trkpt lat="44.1742552779344" lon="3.6279176272209344"><ele>594.4</ele><time>2026-04-03T07:04:14Z</time></trkpt><trkpt lat="44.17422545253085" lon="3.6280732220504763"><ele>594.8</ele><time>2026-04-03T07:04:15Z</time></trkpt><trkpt lat="44.17420452643233" lon="3.6282108392934562"><ele>595.2</ele><time>2026-04-03T07:04:16Z</time></trkpt><trkpt lat="44.174213501156494" lon="3.6283485452326008"><ele>595.6</ele><time>2026-04-03T07:04:17Z</time></trkpt><trkpt lat="44.17424396172528" lon="3.628474381489243"><ele>596.0</ele><time>2026-04-03T07:04:18Z</time></trkpt><trkpt lat="44.174273384012544" lon="3.6285766905141594"><ele>593.5</ele><time>2026-04-03T07:04:19Z</time></trkpt><trkpt lat="44.17419086525397" lon="3.6286631241680443"><ele>591.0</ele><time>2026-04-03T07:04:21Z</time></trkpt><trkpt lat="44.17406602374428" lon="3.628750820507791"><ele>588.5</ele><time>2026-04-03T07:04:23Z</time></trkpt><trkpt lat="44.174003262607165" lon="3.628846875803573"><ele>586.0</ele><time>2026-04-03T07:04:24Z</time></trkpt><trkpt lat="44.17394497405225" lon="3.629006816315358"><ele>586.0</ele><time>2026-04-03T07:04:25Z</time></trkpt><trkpt lat="44.173851861230084" lon="3.6291499581723716"><ele>586.0</ele><time>2026-04-03T07:04:26Z</time></trkpt><trkpt lat="44.17374671187396" lon="3.6292708837930654"><ele>586.0</ele><time>2026-04-03T07:04:27Z</time></trkpt><trkpt lat="44.173615689786885" lon="3.6294053424583264"><ele>586.0</ele><time>2026-04-03T07:04:28Z</time></trkpt><trkpt lat="44.173468278723355" lon="3.6295300365610914"><ele>585.3333333333334</ele><time>2026-04-03T07:04:29Z</time></trkpt><trkpt lat="44.173313302217586" lon="3.6296577517302127"><ele>584.6666666666666</ele><time>2026-04-03T07:04:30Z</time></trkpt><trkpt lat="44.173182916702984" lon="3.629829540669085"><ele>584.0</ele><time>2026-04-03T07:04:31Z</time></trkpt><trkpt lat="44.17303939359052" lon="3.629964513115765"><ele>584.0</ele><time>2026-04-03T07:04:32Z</time></trkpt><trkpt lat="44.1729047363908" lon="3.6300892374792455"><ele>584.0</ele><time>2026-04-03T07:04:33Z</time></trkpt><trkpt lat="44.172787198221165" lon="3.6302115601322043"><ele>584.0</ele><time>2026-04-03T07:04:34Z</time></trkpt><trkpt lat="44.17268504489479" lon="3.630339144567513"><ele>584.0</ele><time>2026-04-03T07:04:35Z</time></trkpt><trkpt lat="44.17259505265117" lon="3.6304575815509716"><ele>585.4</ele><time>2026-04-03T07:04:36Z</time></trkpt><trkpt lat="44.17251820907148" lon="3.630571614811961"><ele>586.8</ele><time>2026-04-03T07:04:37Z</time></trkpt><trkpt lat="44.17246321124865" lon="3.6306929057967525"><ele>588.2</ele><time>2026-04-03T07:04:38Z</time></trkpt><trkpt lat="44.17244560578704" lon="3.6308311855979625"><ele>589.6</ele><time>2026-04-03T07:04:39Z</time></trkpt><trkpt lat="44.172462026685345" lon="3.6309741784486187"><ele>591.0</ele><time>2026-04-03T07:04:40Z</time></trkpt><trkpt lat="44.172501417257294" lon="3.6311188737263524"><ele>591.0</ele><time>2026-04-03T07:04:41Z</time></trkpt><trkpt lat="44.172539641816265" lon="3.6312584037799533"><ele>591.0</ele><time>2026-04-03T07:04:42Z</time></trkpt><trkpt lat="44.172574725835666" lon="3.631404570285632"><ele>591.0</ele><time>2026-04-03T07:04:43Z</time></trkpt><trkpt lat="44.172609072252406" lon="3.631557059631627"><ele>591.0</ele><time>2026-04-03T07:04:44Z</time></trkpt><trkpt lat="44.172638857295894" lon="3.631690068561378"><ele>591.0</ele><time>2026-04-03T07:04:45Z</time></trkpt><trkpt lat="44.17265148061314" lon="3.6318124948522166"><ele>591.0</ele><time>2026-04-03T07:04:46Z</time></trkpt><trkpt lat="44.172633958555146" lon="3.6319106330857753"><ele>591.0</ele><time>2026-04-03T07:04:47Z</time></trkpt><trkpt lat="44.17254351554092" lon="3.6319424807895366"><ele>591.0</ele><time>2026-04-03T07:04:48Z</time></trkpt><trkpt lat="44.172483976111046" lon="3.6320389382911547"><ele>591.0</ele><time>2026-04-03T07:04:49Z</time></trkpt><trkpt lat="44.17241576745219" lon="3.6321494402325736"><ele>591.0</ele><time>2026-04-03T07:04:50Z</time></trkpt><trkpt lat="44.17233534714889" lon="3.632264723061247"><ele>588.25</ele><time>2026-04-03T07:04:51Z</time></trkpt><trkpt lat="44.17223421483378" lon="3.632368240520947"><ele>585.5</ele><time>2026-04-03T07:04:52Z</time></trkpt><trkpt lat="44.17211796049472" lon="3.6324420775189847"><ele>582.75</ele><time>2026-04-03T07:04:53Z</time></trkpt><trkpt lat="44.17204128416949" lon="3.6325691757342526"><ele>580.0</ele><time>2026-04-03T07:04:54Z</time></trkpt><trkpt lat="44.171956925619085" lon="3.6326287836588063"><ele>580.0</ele><time>2026-04-03T07:04:55Z</time></trkpt><trkpt lat="44.17187231870786" lon="3.632634109862089"><ele>580.0</ele><time>2026-04-03T07:04:56Z</time></trkpt><trkpt lat="44.171791145013124" lon="3.63261222161072"><ele>580.0</ele><time>2026-04-03T07:04:57Z</time></trkpt><trkpt lat="44.17170680302758" lon="3.6325987990836666"><ele>580.0</ele><time>2026-04-03T07:04:58Z</time></trkpt><trkpt lat="44.171633527336084" lon="3.6325971062161666"><ele>580.0</ele><time>2026-04-03T07:04:59Z</time></trkpt><trkpt lat="44.17156719242921" lon="3.632611663212285"><ele>580.0</ele><time>2026-04-03T07:05:00Z</time></trkpt><trkpt lat="44.17151414478379" lon="3.6326734472175337"><ele>579.0</ele><time>2026-04-03T07:05:01Z</time></trkpt><trkpt lat="44.17147955334173" lon="3.6327503663612557"><ele>578.0</ele><time>2026-04-03T07:05:02Z</time></trkpt><trkpt lat="44.171451746743934" lon="3.632840435727403"><ele>577.0</ele><time>2026-04-03T07:05:03Z</time></trkpt><trkpt lat="44.171412703520865" lon="3.63295987340128"><ele>576.0</ele><time>2026-04-03T07:05:04Z</time></trkpt><trkpt lat="44.17138252188008" lon="3.6331006976823685"><ele>575.0</ele><time>2026-04-03T07:05:05Z</time></trkpt><trkpt lat="44.171369724571676" lon="3.6332520243997775"><ele>574.0</ele><time>2026-04-03T07:05:06Z</time></trkpt><trkpt lat="44.17134935625414" lon="3.6334127713385684"><ele>573.2</ele><time>2026-04-03T07:05:07Z</time></trkpt><trkpt lat="44.17126810482004" lon="3.6335471255173535"><ele>572.4</ele><time>2026-04-03T07:05:08Z</time></trkpt><trkpt lat="44.17121542508718" lon="3.6336904163874015"><ele>571.6</ele><time>2026-04-03T07:05:09Z</time></trkpt><trkpt lat="44.17115461817404" lon="3.6338134746148834"><ele>570.8</ele><time>2026-04-03T07:05:10Z</time></trkpt><trkpt lat="44.17112328917089" lon="3.6339265947232544"><ele>570.0</ele><time>2026-04-03T07:05:11Z</time></trkpt><trkpt lat="44.171125529597255" lon="3.634046902841332"><ele>570.0</ele><time>2026-04-03T07:05:12Z</time></trkpt><trkpt lat="44.17115634860009" lon="3.634164355345276"><ele>570.0</ele><time>2026-04-03T07:05:13Z</time></trkpt><trkpt lat="44.17118657304249" lon="3.634280983370998"><ele>570.0</ele><time>2026-04-03T07:05:14Z</time></trkpt><trkpt lat="44.171216687836626" lon="3.6344033522247363"><ele>570.0</ele><time>2026-04-03T07:05:15Z</time></trkpt><trkpt lat="44.17125897738717" lon="3.6345305014493294"><ele>570.0</ele><time>2026-04-03T07:05:16Z</time></trkpt><trkpt lat="44.17130866413233" lon="3.634649255283918"><ele>568.6666666666666</ele><time>2026-04-03T07:05:17Z</time></trkpt><trkpt lat="44.171364349927714" lon="3.634745492731295"><ele>567.3333333333334</ele><time>2026-04-03T07:05:18Z</time></trkpt><trkpt lat="44.17143403683953" lon="3.6348149720270984"><ele>566.0</ele><time>2026-04-03T07:05:19Z</time></trkpt><trkpt lat="44.17151591085011" lon="3.634845918904762"><ele>564.6666666666667</ele><time>2026-04-03T07:05:20Z</time></trkpt><trkpt lat="44.17158928497144" lon="3.6348738763719757"><ele>563.3333333333334</ele><time>2026-04-03T07:05:21Z</time></trkpt><trkpt lat="44.171643555039665" lon="3.6349244939035805"><ele>562.0</ele><time>2026-04-03T07:05:22Z</time></trkpt><trkpt lat="44.171675760317626" lon="3.6350799239854257"><ele>561.75</ele><time>2026-04-03T07:05:24Z</time></trkpt><trkpt lat="44.17155477914099" lon="3.6351993553252266"><ele>561.5</ele><time>2026-04-03T07:05:26Z</time></trkpt><trkpt lat="44.17147595406345" lon="3.6353082019130922"><ele>561.25</ele><time>2026-04-03T07:05:27Z</time></trkpt><trkpt lat="44.17139573417564" lon="3.6353994504088734"><ele>561.0</ele><time>2026-04-03T07:05:28Z</time></trkpt><trkpt lat="44.17132435839513" lon="3.635524081954413"><ele>561.0</ele><time>2026-04-03T07:05:29Z</time></trkpt><trkpt lat="44.17126406135836" lon="3.6356665434244"><ele>561.0</ele><time>2026-04-03T07:05:30Z</time></trkpt><trkpt lat="44.171213107846214" lon="3.6358138081900626"><ele>561.0</ele><time>2026-04-03T07:05:31Z</time></trkpt><trkpt lat="44.17115230585783" lon="3.6359522294330793"><ele>561.0</ele><time>2026-04-03T07:05:32Z</time></trkpt><trkpt lat="44.17105472508271" lon="3.636036042618056"><ele>561.0</ele><time>2026-04-03T07:05:33Z</time></trkpt><trkpt lat="44.17095248648583" lon="3.636067303211189"><ele>561.0</ele><time>2026-04-03T07:05:34Z</time></trkpt><trkpt lat="44.170870009779264" lon="3.6361355945244633"><ele>561.0</ele><time>2026-04-03T07:05:35Z</time></trkpt><trkpt lat="44.170793871097814" lon="3.6362147147556176"><ele>561.0</ele><time>2026-04-03T07:05:36Z</time></trkpt><trkpt lat="44.170743583660816" lon="3.6363264459366746"><ele>561.0</ele><time>2026-04-03T07:05:37Z</time></trkpt><trkpt lat="44.170723285234445" lon="3.6364380507423424"><ele>562.0</ele><time>2026-04-03T07:05:38Z</time></trkpt><trkpt lat="44.1707304560295" lon="3.636534536133609"><ele>563.0</ele><time>2026-04-03T07:05:39Z</time></trkpt><trkpt lat="44.170767422935775" lon="3.6366251314637728"><ele>564.0</ele><time>2026-04-03T07:05:40Z</time></trkpt><trkpt lat="44.17079644904587" lon="3.6367073465473396"><ele>565.0</ele><time>2026-04-03T07:05:41Z</time></trkpt><trkpt lat="44.17081362377495" lon="3.6368068977103536"><ele>566.0</ele><time>2026-04-03T07:05:42Z</time></trkpt><trkpt lat="44.170830798159855" lon="3.636927683060708"><ele>567.0</ele><time>2026-04-03T07:05:43Z</time></trkpt><trkpt lat="44.17082512880787" lon="3.637061730441702"><ele>567.0</ele><time>2026-04-03T07:05:44Z</time></trkpt><trkpt lat="44.17082631888685" lon="3.63721242721118"><ele>567.0</ele><time>2026-04-03T07:05:45Z</time></trkpt><trkpt lat="44.17083275112293" lon="3.6373925353330896"><ele>567.0</ele><time>2026-04-03T07:05:46Z</time></trkpt><trkpt lat="44.170818845629796" lon="3.6375621456890053"><ele>567.0</ele><time>2026-04-03T07:05:47Z</time></trkpt><trkpt lat="44.17081995719454" lon="3.637710987768368"><ele>567.8000000000001</ele><time>2026-04-03T07:05:48Z</time></trkpt><trkpt lat="44.17085287988891" lon="3.637853733725588"><ele>568.6</ele><time>2026-04-03T07:05:49Z</time></trkpt><trkpt lat="44.170883678159775" lon="3.6379615934004703"><ele>569.4000000000001</ele><time>2026-04-03T07:05:50Z</time></trkpt><trkpt lat="44.17085030478344" lon="3.6380553997354723"><ele>570.2</ele><time>2026-04-03T07:05:51Z</time></trkpt><trkpt lat="44.17079682003353" lon="3.6381507369149206"><ele>571.0</ele><time>2026-04-03T07:05:52Z</time></trkpt><trkpt lat="44.170723778725815" lon="3.6383026320758787"><ele>565.0</ele><time>2026-04-03T07:05:53Z</time></trkpt><trkpt lat="44.17064280133659" lon="3.638470410043574"><ele>559.0</ele><time>2026-04-03T07:05:54Z</time></trkpt><trkpt lat="44.17056722487134" lon="3.63861850406385"><ele>553.0</ele><time>2026-04-03T07:05:55Z</time></trkpt><trkpt lat="44.170492597941355" lon="3.638748780595087"><ele>547.0</ele><time>2026-04-03T07:05:56Z</time></trkpt><trkpt lat="44.1704299597797" lon="3.638875611587759"><ele>547.0</ele><time>2026-04-03T07:05:57Z</time></trkpt><trkpt lat="44.170364942268485" lon="3.639007260098041"><ele>547.0</ele><time>2026-04-03T07:05:58Z</time></trkpt><trkpt lat="44.17030064815803" lon="3.6391367743044207"><ele>547.0</ele><time>2026-04-03T07:05:59Z</time></trkpt><trkpt lat="44.1702308799529" lon="3.6392615555205334"><ele>547.0</ele><time>2026-04-03T07:06:00Z</time></trkpt><trkpt lat="44.170171732190035" lon="3.639402057256676"><ele>548.4</ele><time>2026-04-03T07:06:01Z</time></trkpt><trkpt lat="44.170115634751774" lon="3.6395107168784566"><ele>549.8000000000001</ele><time>2026-04-03T07:06:02Z</time></trkpt><trkpt lat="44.17003332552875" lon="3.639567601209622"><ele>551.2</ele><time>2026-04-03T07:06:03Z</time></trkpt><trkpt lat="44.169982013935666" lon="3.6396510345098374"><ele>552.6</ele><time>2026-04-03T07:06:04Z</time></trkpt><trkpt lat="44.169969049989895" lon="3.639769153621398"><ele>554.0</ele><time>2026-04-03T07:06:05Z</time></trkpt><trkpt lat="44.169959559592286" lon="3.639916787784213"><ele>554.0</ele><time>2026-04-03T07:06:06Z</time></trkpt><trkpt lat="44.169948377856585" lon="3.6400657532643974"><ele>554.0</ele><time>2026-04-03T07:06:07Z</time></trkpt><trkpt lat="44.16987962988179" lon="3.640153145116595"><ele>554.0</ele><time>2026-04-03T07:06:08Z</time></trkpt><trkpt lat="44.169831780231206" lon="3.640253173708047"><ele>554.0</ele><time>2026-04-03T07:06:09Z</time></trkpt><trkpt lat="44.16980089876175" lon="3.6403614514547287"><ele>554.0</ele><time>2026-04-03T07:06:10Z</time></trkpt><trkpt lat="44.16978187675313" lon="3.640471500164348"><ele>553.4</ele><time>2026-04-03T07:06:11Z</time></trkpt><trkpt lat="44.16979709325698" lon="3.6406084411273008"><ele>552.8</ele><time>2026-04-03T07:06:12Z</time></trkpt><trkpt lat="44.16981797743863" lon="3.6407414884315066"><ele>552.2</ele><time>2026-04-03T07:06:13Z</time></trkpt><trkpt lat="44.16983720560974" lon="3.6408860773054115"><ele>551.6</ele><time>2026-04-03T07:06:14Z</time></trkpt><trkpt lat="44.16984273379653" lon="3.6410547548903582"><ele>551.0</ele><time>2026-04-03T07:06:15Z</time></trkpt><trkpt lat="44.16983967203118" lon="3.641217485365532"><ele>551.0</ele><time>2026-04-03T07:06:16Z</time></trkpt><trkpt lat="44.169805129390156" lon="3.6413888081555372"><ele>551.0</ele><time>2026-04-03T07:06:17Z</time></trkpt><trkpt lat="44.16981389557497" lon="3.6415453608859587"><ele>551.0</ele><time>2026-04-03T07:06:18Z</time></trkpt><trkpt lat="44.16981478742209" lon="3.6416708481783124"><ele>551.0</ele><time>2026-04-03T07:06:19Z</time></trkpt><trkpt lat="44.16981509487414" lon="3.6417783985761147"><ele>551.0</ele><time>2026-04-03T07:06:20Z</time></trkpt><trkpt lat="44.16974710010633" lon="3.641847284513775"><ele>551.0</ele><time>2026-04-03T07:06:21Z</time></trkpt><trkpt lat="44.16972537193262" lon="3.6419357584611984"><ele>551.0</ele><time>2026-04-03T07:06:22Z</time></trkpt><trkpt lat="44.16970320651119" lon="3.6420260115316294"><ele>551.0</ele><time>2026-04-03T07:06:23Z</time></trkpt><trkpt lat="44.16973891493847" lon="3.642135245496011"><ele>551.0</ele><time>2026-04-03T07:06:24Z</time></trkpt><trkpt lat="44.16976629569786" lon="3.6422457534138273"><ele>551.0</ele><time>2026-04-03T07:06:25Z</time></trkpt><trkpt lat="44.16979002075582" lon="3.642361805154775"><ele>551.0</ele><time>2026-04-03T07:06:26Z</time></trkpt><trkpt lat="44.16981412687635" lon="3.6424895611493886"><ele>550.6</ele><time>2026-04-03T07:06:27Z</time></trkpt><trkpt lat="44.169834310621795" lon="3.642621199497742"><ele>550.2</ele><time>2026-04-03T07:06:28Z</time></trkpt><trkpt lat="44.16985110261251" lon="3.6427464426351777"><ele>549.8</ele><time>2026-04-03T07:06:29Z</time></trkpt><trkpt lat="44.169840227317444" lon="3.6428639907460085"><ele>549.4</ele><time>2026-04-03T07:06:30Z</time></trkpt><trkpt lat="44.169777527131906" lon="3.6429570019570297"><ele>549.0</ele><time>2026-04-03T07:06:31Z</time></trkpt><trkpt lat="44.169712847934555" lon="3.643034220706952"><ele>546.6</ele><time>2026-04-03T07:06:32Z</time></trkpt><trkpt lat="44.16967071998867" lon="3.6431478953734833"><ele>544.2</ele><time>2026-04-03T07:06:33Z</time></trkpt><trkpt lat="44.16963139577449" lon="3.6432603927568574"><ele>541.8000000000001</ele><time>2026-04-03T07:06:34Z</time></trkpt><trkpt lat="44.1695958121954" lon="3.64342262012772"><ele>539.4</ele><time>2026-04-03T07:06:35Z</time></trkpt><trkpt lat="44.16955525492857" lon="3.6435927191881476"><ele>537.0</ele><time>2026-04-03T07:06:36Z</time></trkpt><trkpt lat="44.16951000268386" lon="3.6437686507171483"><ele>536.0</ele><time>2026-04-03T07:06:37Z</time></trkpt><trkpt lat="44.16946069655566" lon="3.643929886031429"><ele>535.0</ele><time>2026-04-03T07:06:38Z</time></trkpt><trkpt lat="44.16941529805331" lon="3.6440886222189346"><ele>534.0</ele><time>2026-04-03T07:06:39Z</time></trkpt><trkpt lat="44.169389845828576" lon="3.644253760099395"><ele>533.0</ele><time>2026-04-03T07:06:40Z</time></trkpt><trkpt lat="44.16936732240011" lon="3.644420398171165"><ele>531.0</ele><time>2026-04-03T07:06:41Z</time></trkpt><trkpt lat="44.1693464573484" lon="3.6445826150097136"><ele>529.0</ele><time>2026-04-03T07:06:42Z</time></trkpt><trkpt lat="44.169324099549044" lon="3.6447410512237397"><ele>527.0</ele><time>2026-04-03T07:06:43Z</time></trkpt><trkpt lat="44.16930441528021" lon="3.6448900734836887"><ele>525.0</ele><time>2026-04-03T07:06:44Z</time></trkpt><trkpt lat="44.16925824981265" lon="3.6450243974323193"><ele>525.0</ele><time>2026-04-03T07:06:45Z</time></trkpt><trkpt lat="44.169244816573936" lon="3.6451572042965417"><ele>525.0</ele><time>2026-04-03T07:06:46Z</time></trkpt><trkpt lat="44.16921760807079" lon="3.6452725832363746"><ele>525.0</ele><time>2026-04-03T07:06:47Z</time></trkpt><trkpt lat="44.16922601654473" lon="3.645382250716622"><ele>525.0</ele><time>2026-04-03T07:06:48Z</time></trkpt><trkpt lat="44.16926657695046" lon="3.6454835681411355"><ele>525.0</ele><time>2026-04-03T07:06:49Z</time></trkpt><trkpt lat="44.169331271418955" lon="3.6455683413677034"><ele>525.0</ele><time>2026-04-03T07:06:50Z</time></trkpt><trkpt lat="44.1694269747205" lon="3.6456342133339947"><ele>524.4</ele><time>2026-04-03T07:06:51Z</time></trkpt><trkpt lat="44.16951826334337" lon="3.645670155244993"><ele>523.8</ele><time>2026-04-03T07:06:52Z</time></trkpt><trkpt lat="44.16958441823695" lon="3.645719065755487"><ele>523.2</ele><time>2026-04-03T07:06:53Z</time></trkpt><trkpt lat="44.169660187192235" lon="3.6458054001088205"><ele>522.6</ele><time>2026-04-03T07:06:55Z</time></trkpt><trkpt lat="44.16969766389189" lon="3.64597783661225"><ele>522.0</ele><time>2026-04-03T07:06:57Z</time></trkpt><trkpt lat="44.1698629599056" lon="3.6460375175451643"><ele>520.4</ele><time>2026-04-03T07:06:58Z</time></trkpt><trkpt lat="44.169946419846674" lon="3.64614850852673"><ele>518.8000000000001</ele><time>2026-04-03T07:06:59Z</time></trkpt><trkpt lat="44.170003247015764" lon="3.64627401494717"><ele>517.2</ele><time>2026-04-03T07:07:00Z</time></trkpt><trkpt lat="44.17006541336832" lon="3.6463952057186186"><ele>515.6</ele><time>2026-04-03T07:07:01Z</time></trkpt><trkpt lat="44.17014903665843" lon="3.6464705026679995"><ele>514.0</ele><time>2026-04-03T07:07:02Z</time></trkpt><trkpt lat="44.170251027122596" lon="3.6464884784112717"><ele>514.0</ele><time>2026-04-03T07:07:03Z</time></trkpt><trkpt lat="44.17036536546724" lon="3.6464465732887095"><ele>514.0</ele><time>2026-04-03T07:07:04Z</time></trkpt><trkpt lat="44.17048821101925" lon="3.6463734223928292"><ele>514.0</ele><time>2026-04-03T07:07:05Z</time></trkpt><trkpt lat="44.17061754478808" lon="3.6462815745581416"><ele>514.0</ele><time>2026-04-03T07:07:06Z</time></trkpt><trkpt lat="44.170744461847114" lon="3.6461949501725153"><ele>516.75</ele><time>2026-04-03T07:07:07Z</time></trkpt><trkpt lat="44.17087216727944" lon="3.6461470696947416"><ele>519.5</ele><time>2026-04-03T07:07:08Z</time></trkpt><trkpt lat="44.17099861597957" lon="3.646170000613807"><ele>522.25</ele><time>2026-04-03T07:07:09Z</time></trkpt><trkpt lat="44.17113854780605" lon="3.646185589472704"><ele>525.0</ele><time>2026-04-03T07:07:10Z</time></trkpt><trkpt lat="44.171274883768476" lon="3.6462133729404917"><ele>525.0</ele><time>2026-04-03T07:07:11Z</time></trkpt><trkpt lat="44.171415342176026" lon="3.6461772088578166"><ele>525.0</ele><time>2026-04-03T07:07:12Z</time></trkpt><trkpt lat="44.17154962955235" lon="3.6460596530150204"><ele>525.0</ele><time>2026-04-03T07:07:13Z</time></trkpt><trkpt lat="44.17166619425726" lon="3.6458868693974744"><ele>529.3333333333334</ele><time>2026-04-03T07:07:14Z</time></trkpt><trkpt lat="44.17176901121936" lon="3.645690248080421"><ele>533.6666666666667</ele><time>2026-04-03T07:07:15Z</time></trkpt><trkpt lat="44.17190635173017" lon="3.6455774401877963"><ele>538.0</ele><time>2026-04-03T07:07:16Z</time></trkpt><trkpt lat="44.17205874675475" lon="3.64554884463523"><ele>538.0</ele><time>2026-04-03T07:07:17Z</time></trkpt><trkpt lat="44.1722340205365" lon="3.6454965878375636"><ele>538.0</ele><time>2026-04-03T07:07:18Z</time></trkpt><trkpt lat="44.17243451607171" lon="3.6454824131540615"><ele>538.0</ele><time>2026-04-03T07:07:19Z</time></trkpt><trkpt lat="44.17263802831232" lon="3.645409898466426"><ele>537.3333333333334</ele><time>2026-04-03T07:07:20Z</time></trkpt><trkpt lat="44.17280820546348" lon="3.64531922058704"><ele>536.6666666666666</ele><time>2026-04-03T07:07:21Z</time></trkpt><trkpt lat="44.17297353216466" lon="3.6452387287563504"><ele>536.0</ele><time>2026-04-03T07:07:22Z</time></trkpt><trkpt lat="44.17312211871119" lon="3.6452064541835134"><ele>540.75</ele><time>2026-04-03T07:07:23Z</time></trkpt><trkpt lat="44.173264335639125" lon="3.645197150670711"><ele>545.5</ele><time>2026-04-03T07:07:24Z</time></trkpt><trkpt lat="44.17341658209881" lon="3.6451908885556503"><ele>550.25</ele><time>2026-04-03T07:07:25Z</time></trkpt><trkpt lat="44.173555222800374" lon="3.645212330741277"><ele>555.0</ele><time>2026-04-03T07:07:26Z</time></trkpt><trkpt lat="44.17366158488469" lon="3.6452719657537727"><ele>554.0</ele><time>2026-04-03T07:07:27Z</time></trkpt><trkpt lat="44.173725471432256" lon="3.6453159573954066"><ele>553.0</ele><time>2026-04-03T07:07:28Z</time></trkpt><trkpt lat="44.173785037462764" lon="3.645377150142056"><ele>552.0</ele><time>2026-04-03T07:07:29Z</time></trkpt><trkpt lat="44.17376647085583" lon="3.645526787967958"><ele>551.0</ele><time>2026-04-03T07:07:30Z</time></trkpt><trkpt lat="44.17373136539151" lon="3.6456526290644287"><ele>550.0</ele><time>2026-04-03T07:07:31Z</time></trkpt><trkpt lat="44.17362105865003" lon="3.6456892367025118"><ele>550.0</ele><time>2026-04-03T07:07:32Z</time></trkpt><trkpt lat="44.173493478056976" lon="3.645716685502403"><ele>550.0</ele><time>2026-04-03T07:07:33Z</time></trkpt><trkpt lat="44.173349489493475" lon="3.6457829031473983"><ele>550.0</ele><time>2026-04-03T07:07:34Z</time></trkpt><trkpt lat="44.17317180302156" lon="3.6458512684477213"><ele>545.3333333333334</ele><time>2026-04-03T07:07:35Z</time></trkpt><trkpt lat="44.172991753997486" lon="3.645924531762369"><ele>540.6666666666666</ele><time>2026-04-03T07:07:36Z</time></trkpt><trkpt lat="44.172835948418346" lon="3.646000801627105"><ele>536.0</ele><time>2026-04-03T07:07:37Z</time></trkpt><trkpt lat="44.17268936640712" lon="3.6460840594995676"><ele>535.6666666666666</ele><time>2026-04-03T07:07:38Z</time></trkpt><trkpt lat="44.17253549120695" lon="3.646217522976137"><ele>535.3333333333334</ele><time>2026-04-03T07:07:39Z</time></trkpt><trkpt lat="44.172367122010044" lon="3.646394814080834"><ele>535.0</ele><time>2026-04-03T07:07:40Z</time></trkpt><trkpt lat="44.172179933803655" lon="3.646573698994194"><ele>535.0</ele><time>2026-04-03T07:07:41Z</time></trkpt><trkpt lat="44.172007903085046" lon="3.646744950013478"><ele>535.0</ele><time>2026-04-03T07:07:42Z</time></trkpt><trkpt lat="44.17187540222355" lon="3.6469125810284013"><ele>535.0</ele><time>2026-04-03T07:07:43Z</time></trkpt><trkpt lat="44.1717668129727" lon="3.647050222848935"><ele>537.3333333333334</ele><time>2026-04-03T07:07:44Z</time></trkpt><trkpt lat="44.17159815887887" lon="3.6470724306264706"><ele>539.6666666666666</ele><time>2026-04-03T07:07:45Z</time></trkpt><trkpt lat="44.17144348807625" lon="3.6471695206365777"><ele>542.0</ele><time>2026-04-03T07:07:46Z</time></trkpt><trkpt lat="44.171306713970004" lon="3.6472635784185674"><ele>542.0</ele><time>2026-04-03T07:07:47Z</time></trkpt><trkpt lat="44.17113275497004" lon="3.6473102084381663"><ele>542.0</ele><time>2026-04-03T07:07:48Z</time></trkpt><trkpt lat="44.17097798173018" lon="3.647451067573517"><ele>542.0</ele><time>2026-04-03T07:07:49Z</time></trkpt><trkpt lat="44.17087853606054" lon="3.6477540708363843"><ele>538.75</ele><time>2026-04-03T07:07:50Z</time></trkpt><trkpt lat="44.170761445223256" lon="3.6479144739665506"><ele>535.5</ele><time>2026-04-03T07:07:51Z</time></trkpt><trkpt lat="44.1706727282002" lon="3.6480568839575946"><ele>532.25</ele><time>2026-04-03T07:07:52Z</time></trkpt><trkpt lat="44.170615703284945" lon="3.648212013172229"><ele>529.0</ele><time>2026-04-03T07:07:53Z</time></trkpt><trkpt lat="44.17057407967941" lon="3.648379668927222"><ele>529.0</ele><time>2026-04-03T07:07:54Z</time></trkpt><trkpt lat="44.17056637194482" lon="3.648559430406128"><ele>529.0</ele><time>2026-04-03T07:07:55Z</time></trkpt><trkpt lat="44.170592865347146" lon="3.6487638227876595"><ele>529.0</ele><time>2026-04-03T07:07:56Z</time></trkpt><trkpt lat="44.170640853948115" lon="3.6489692265064946"><ele>529.0</ele><time>2026-04-03T07:07:57Z</time></trkpt><trkpt lat="44.17071035846276" lon="3.64919847743386"><ele>538.5</ele><time>2026-04-03T07:07:58Z</time></trkpt><trkpt lat="44.17076877014838" lon="3.649384505920472"><ele>548.0</ele><time>2026-04-03T07:07:59Z</time></trkpt><trkpt lat="44.17081366705314" lon="3.6495628454632976"><ele>557.5</ele><time>2026-04-03T07:08:00Z</time></trkpt><trkpt lat="44.17085908313322" lon="3.6497548962071655"><ele>567.0</ele><time>2026-04-03T07:08:01Z</time></trkpt><trkpt lat="44.170823708313115" lon="3.6499642525855687"><ele>567.0</ele><time>2026-04-03T07:08:02Z</time></trkpt><trkpt lat="44.170822493680475" lon="3.650160018467371"><ele>567.0</ele><time>2026-04-03T07:08:03Z</time></trkpt><trkpt lat="44.17083504347804" lon="3.650367684575774"><ele>567.0</ele><time>2026-04-03T07:08:04Z</time></trkpt><trkpt lat="44.17088346990443" lon="3.6506069317589307"><ele>567.3333333333334</ele><time>2026-04-03T07:08:05Z</time></trkpt><trkpt lat="44.17093955835834" lon="3.6508393000057207"><ele>567.6666666666667</ele><time>2026-04-03T07:08:06Z</time></trkpt><trkpt lat="44.17097024388125" lon="3.6510628030665946"><ele>568.0</ele><time>2026-04-03T07:08:07Z</time></trkpt><trkpt lat="44.1709411521696" lon="3.651288236712208"><ele>568.3333333333334</ele><time>2026-04-03T07:08:08Z</time></trkpt><trkpt lat="44.17096617650287" lon="3.6515148098312875"><ele>568.6666666666666</ele><time>2026-04-03T07:08:09Z</time></trkpt><trkpt lat="44.17098152059707" lon="3.651743147985885"><ele>569.0</ele><time>2026-04-03T07:08:10Z</time></trkpt><trkpt lat="44.17098501824789" lon="3.6519804055555993"><ele>571.0</ele><time>2026-04-03T07:08:11Z</time></trkpt><trkpt lat="44.17092893038095" lon="3.652234949840904"><ele>573.0</ele><time>2026-04-03T07:08:12Z</time></trkpt><trkpt lat="44.17089830747464" lon="3.652519664684317"><ele>575.0</ele><time>2026-04-03T07:08:13Z</time></trkpt><trkpt lat="44.17086591043425" lon="3.6527863317203417"><ele>578.0</ele><time>2026-04-03T07:08:14Z</time></trkpt><trkpt lat="44.170838579285956" lon="3.653036454421853"><ele>581.0</ele><time>2026-04-03T07:08:15Z</time></trkpt><trkpt lat="44.170792962736655" lon="3.65327454293438"><ele>584.0</ele><time>2026-04-03T07:08:16Z</time></trkpt><trkpt lat="44.17073484493907" lon="3.653472906263139"><ele>573.75</ele><time>2026-04-03T07:08:17Z</time></trkpt><trkpt lat="44.17064246745255" lon="3.653617003046284"><ele>563.5</ele><time>2026-04-03T07:08:18Z</time></trkpt><trkpt lat="44.17057515904255" lon="3.6537642460588904"><ele>553.25</ele><time>2026-04-03T07:08:19Z</time></trkpt><trkpt lat="44.17050898309165" lon="3.6538746069944925"><ele>543.0</ele><time>2026-04-03T07:08:20Z</time></trkpt><trkpt lat="44.17049096459176" lon="3.6540064832067265"><ele>543.0</ele><time>2026-04-03T07:08:21Z</time></trkpt><trkpt lat="44.17051874791716" lon="3.6541217306683134"><ele>543.0</ele><time>2026-04-03T07:08:22Z</time></trkpt><trkpt lat="44.17058760919971" lon="3.65419491012212"><ele>543.0</ele><time>2026-04-03T07:08:23Z</time></trkpt><trkpt lat="44.17067804605053" lon="3.6542298832458253"><ele>543.0</ele><time>2026-04-03T07:08:24Z</time></trkpt><trkpt lat="44.17080134839975" lon="3.6542144070795954"><ele>543.0</ele><time>2026-04-03T07:08:25Z</time></trkpt><trkpt lat="44.17095982677462" lon="3.6541607267834064"><ele>552.5</ele><time>2026-04-03T07:08:26Z</time></trkpt><trkpt lat="44.17111047562959" lon="3.654115766703781"><ele>562.0</ele><time>2026-04-03T07:08:27Z</time></trkpt><trkpt lat="44.17125548259186" lon="3.6540900127220595"><ele>571.5</ele><time>2026-04-03T07:08:28Z</time></trkpt><trkpt lat="44.17139867002412" lon="3.654084440442877"><ele>581.0</ele><time>2026-04-03T07:08:29Z</time></trkpt><trkpt lat="44.17154757740068" lon="3.654109607909359"><ele>587.3333333333333</ele><time>2026-04-03T07:08:30Z</time></trkpt><trkpt lat="44.17170314374501" lon="3.6541615305301987"><ele>593.6666666666666</ele><time>2026-04-03T07:08:31Z</time></trkpt><trkpt lat="44.1718619570695" lon="3.6542333647373026"><ele>600.0</ele><time>2026-04-03T07:08:32Z</time></trkpt><trkpt lat="44.172026540638974" lon="3.6543111870735494"><ele>600.0</ele><time>2026-04-03T07:08:33Z</time></trkpt><trkpt lat="44.17219610886846" lon="3.654392212989868"><ele>600.0</ele><time>2026-04-03T07:08:34Z</time></trkpt><trkpt lat="44.17235346498881" lon="3.6544761468885127"><ele>600.0</ele><time>2026-04-03T07:08:35Z</time></trkpt><trkpt lat="44.172490912269865" lon="3.6545371767362043"><ele>595.75</ele><time>2026-04-03T07:08:36Z</time></trkpt><trkpt lat="44.172619185039636" lon="3.6545545122363903"><ele>591.5</ele><time>2026-04-03T07:08:37Z</time></trkpt><trkpt lat="44.17273854759466" lon="3.65452303135558"><ele>587.25</ele><time>2026-04-03T07:08:38Z</time></trkpt><trkpt lat="44.172855597007086" lon="3.65455407008406"><ele>583.0</ele><time>2026-04-03T07:08:39Z</time></trkpt><trkpt lat="44.17294214826839" lon="3.654671984170989"><ele>583.0</ele><time>2026-04-03T07:08:40Z</time></trkpt><trkpt lat="44.17298537212356" lon="3.6548497952269856"><ele>583.0</ele><time>2026-04-03T07:08:41Z</time></trkpt><trkpt lat="44.173058562674825" lon="3.6550060285329016"><ele>583.0</ele><time>2026-04-03T07:08:42Z</time></trkpt><trkpt lat="44.17312252658873" lon="3.6551411373727194"><ele>583.0</ele><time>2026-04-03T07:08:43Z</time></trkpt><trkpt lat="44.17322922578438" lon="3.655247980601476"><ele>583.0</ele><time>2026-04-03T07:08:44Z</time></trkpt><trkpt lat="44.17337725746069" lon="3.6553145326356167"><ele>583.0</ele><time>2026-04-03T07:08:45Z</time></trkpt><trkpt lat="44.17353149334417" lon="3.6553705314214473"><ele>583.0</ele><time>2026-04-03T07:08:46Z</time></trkpt><trkpt lat="44.17368091077057" lon="3.6554306456513648"><ele>583.0</ele><time>2026-04-03T07:08:47Z</time></trkpt><trkpt lat="44.17384475232855" lon="3.6554599607448623"><ele>583.0</ele><time>2026-04-03T07:08:48Z</time></trkpt><trkpt lat="44.17402527978" lon="3.6554503473903686"><ele>583.0</ele><time>2026-04-03T07:08:49Z</time></trkpt><trkpt lat="44.17419482595259" lon="3.6554255447501913"><ele>587.3333333333334</ele><time>2026-04-03T07:08:50Z</time></trkpt><trkpt lat="44.1743520860268" lon="3.6553835699968555"><ele>591.6666666666666</ele><time>2026-04-03T07:08:51Z</time></trkpt><trkpt lat="44.17452121956989" lon="3.6552881084345716"><ele>596.0</ele><time>2026-04-03T07:08:52Z</time></trkpt><trkpt lat="44.17469652583427" lon="3.6551654477703717"><ele>604.6666666666666</ele><time>2026-04-03T07:08:53Z</time></trkpt><trkpt lat="44.17488259534037" lon="3.6550623777943274"><ele>613.3333333333334</ele><time>2026-04-03T07:08:54Z</time></trkpt><trkpt lat="44.175047608309484" lon="3.654981922562343"><ele>622.0</ele><time>2026-04-03T07:08:55Z</time></trkpt><trkpt lat="44.175200513001585" lon="3.6548638084257834"><ele>622.0</ele><time>2026-04-03T07:08:56Z</time></trkpt><trkpt lat="44.17533643452874" lon="3.654697840889219"><ele>622.0</ele><time>2026-04-03T07:08:57Z</time></trkpt><trkpt lat="44.17546875874938" lon="3.654568181666522"><ele>622.0</ele><time>2026-04-03T07:08:58Z</time></trkpt><trkpt lat="44.17560112766378" lon="3.654508051012293"><ele>622.5</ele><time>2026-04-03T07:08:59Z</time></trkpt><trkpt lat="44.175724723012905" lon="3.6544816093558783"><ele>623.0</ele><time>2026-04-03T07:09:00Z</time></trkpt><trkpt lat="44.175828193433674" lon="3.65451525641041"><ele>623.5</ele><time>2026-04-03T07:09:01Z</time></trkpt><trkpt lat="44.175909152715526" lon="3.6546188083963305"><ele>624.0</ele><time>2026-04-03T07:09:02Z</time></trkpt><trkpt lat="44.17596432886249" lon="3.654775441200994"><ele>624.0</ele><time>2026-04-03T07:09:03Z</time></trkpt><trkpt lat="44.1760213566199" lon="3.654943027232157"><ele>624.0</ele><time>2026-04-03T07:09:04Z</time></trkpt><trkpt lat="44.17610648674956" lon="3.6550695294107185"><ele>624.0</ele><time>2026-04-03T07:09:05Z</time></trkpt><trkpt lat="44.17622131823006" lon="3.655146671930114"><ele>624.0</ele><time>2026-04-03T07:09:06Z</time></trkpt><trkpt lat="44.17637084957915" lon="3.65520156423771"><ele>624.0</ele><time>2026-04-03T07:09:07Z</time></trkpt><trkpt lat="44.17651621131386" lon="3.6552742589513234"><ele>624.0</ele><time>2026-04-03T07:09:08Z</time></trkpt><trkpt lat="44.17665667888666" lon="3.655352026492763"><ele>624.0</ele><time>2026-04-03T07:09:09Z</time></trkpt><trkpt lat="44.17680638112783" lon="3.6554236620769527"><ele>621.5</ele><time>2026-04-03T07:09:10Z</time></trkpt><trkpt lat="44.17694882109632" lon="3.6554884537387227"><ele>619.0</ele><time>2026-04-03T07:09:11Z</time></trkpt><trkpt lat="44.177077132656954" lon="3.6555485523995035"><ele>616.5</ele><time>2026-04-03T07:09:12Z</time></trkpt><trkpt lat="44.17719064851499" lon="3.655571320603745"><ele>614.0</ele><time>2026-04-03T07:09:13Z</time></trkpt><trkpt lat="44.17730896838314" lon="3.6555563750224516"><ele>619.75</ele><time>2026-04-03T07:09:14Z</time></trkpt><trkpt lat="44.17743512541149" lon="3.6554990816579367"><ele>625.5</ele><time>2026-04-03T07:09:15Z</time></trkpt><trkpt lat="44.17755183980079" lon="3.6555157843756763"><ele>631.25</ele><time>2026-04-03T07:09:16Z</time></trkpt><trkpt lat="44.17764237418243" lon="3.6555725061658624"><ele>637.0</ele><time>2026-04-03T07:09:17Z</time></trkpt><trkpt lat="44.177700988733704" lon="3.6557261947409594"><ele>637.0</ele><time>2026-04-03T07:09:18Z</time></trkpt><trkpt lat="44.177785048086335" lon="3.6558646120998537"><ele>637.0</ele><time>2026-04-03T07:09:19Z</time></trkpt><trkpt lat="44.1778609710073" lon="3.6559940300459726"><ele>637.0</ele><time>2026-04-03T07:09:20Z</time></trkpt><trkpt lat="44.17798787637039" lon="3.656079697718152"><ele>637.0</ele><time>2026-04-03T07:09:21Z</time></trkpt><trkpt lat="44.17813982335981" lon="3.656130542076088"><ele>635.0</ele><time>2026-04-03T07:09:22Z</time></trkpt><trkpt lat="44.178275842932905" lon="3.6561482093492828"><ele>633.0</ele><time>2026-04-03T07:09:23Z</time></trkpt><trkpt lat="44.17840814574145" lon="3.6561402180293747"><ele>631.0</ele><time>2026-04-03T07:09:24Z</time></trkpt><trkpt lat="44.17855782959483" lon="3.6560678928231582"><ele>629.0</ele><time>2026-04-03T07:09:25Z</time></trkpt><trkpt lat="44.17869306599359" lon="3.6559496326162217"><ele>636.0</ele><time>2026-04-03T07:09:26Z</time></trkpt><trkpt lat="44.17882298928955" lon="3.6559073688411363"><ele>643.0</ele><time>2026-04-03T07:09:27Z</time></trkpt><trkpt lat="44.17893439662571" lon="3.6559233989947377"><ele>650.0</ele><time>2026-04-03T07:09:28Z</time></trkpt><trkpt lat="44.1790286914362" lon="3.655979106719221"><ele>657.0</ele><time>2026-04-03T07:09:29Z</time></trkpt><trkpt lat="44.17912532174872" lon="3.656061537699578"><ele>654.5</ele><time>2026-04-03T07:09:30Z</time></trkpt><trkpt lat="44.179209559907655" lon="3.656219227948556"><ele>652.0</ele><time>2026-04-03T07:09:31Z</time></trkpt><trkpt lat="44.17928182878547" lon="3.6563786417058646"><ele>649.5</ele><time>2026-04-03T07:09:32Z</time></trkpt><trkpt lat="44.179367900242944" lon="3.6565262331582136"><ele>647.0</ele><time>2026-04-03T07:09:33Z</time></trkpt><trkpt lat="44.17947716584121" lon="3.6566427193835187"><ele>647.0</ele><time>2026-04-03T07:09:34Z</time></trkpt><trkpt lat="44.179597948430995" lon="3.6567302556626142"><ele>647.0</ele><time>2026-04-03T07:09:35Z</time></trkpt><trkpt lat="44.17972585903372" lon="3.65678091274356"><ele>647.0</ele><time>2026-04-03T07:09:36Z</time></trkpt><trkpt lat="44.179847072451985" lon="3.65681852031258"><ele>647.0</ele><time>2026-04-03T07:09:37Z</time></trkpt><trkpt lat="44.17996189775124" lon="3.6568423664287"><ele>650.6</ele><time>2026-04-03T07:09:38Z</time></trkpt><trkpt lat="44.18007574749511" lon="3.6568331580717244"><ele>654.2</ele><time>2026-04-03T07:09:39Z</time></trkpt><trkpt lat="44.180183191487586" lon="3.65680310197597"><ele>657.8</ele><time>2026-04-03T07:09:40Z</time></trkpt><trkpt lat="44.18028463264316" lon="3.65676315558878"><ele>661.4</ele><time>2026-04-03T07:09:41Z</time></trkpt><trkpt lat="44.1803875303975" lon="3.6567288192972134"><ele>665.0</ele><time>2026-04-03T07:09:42Z</time></trkpt><trkpt lat="44.18049300732017" lon="3.656723866565803"><ele>665.0</ele><time>2026-04-03T07:09:43Z</time></trkpt><trkpt lat="44.180599211360985" lon="3.656741171442052"><ele>665.0</ele><time>2026-04-03T07:09:44Z</time></trkpt><trkpt lat="44.180701788858315" lon="3.6567648036874383"><ele>665.0</ele><time>2026-04-03T07:09:45Z</time></trkpt><trkpt lat="44.18080014815544" lon="3.6567576166883757"><ele>665.0</ele><time>2026-04-03T07:09:46Z</time></trkpt><trkpt lat="44.18088741177508" lon="3.656711624092794"><ele>665.0</ele><time>2026-04-03T07:09:47Z</time></trkpt><trkpt lat="44.180962764084626" lon="3.6566541843078193"><ele>666.6666666666666</ele><time>2026-04-03T07:09:48Z</time></trkpt><trkpt lat="44.18102328359427" lon="3.656625199031531"><ele>668.3333333333333</ele><time>2026-04-03T07:09:49Z</time></trkpt><trkpt lat="44.181140684332085" lon="3.6566522031175897"><ele>670.0</ele><time>2026-04-03T07:09:51Z</time></trkpt><trkpt lat="44.181215158166005" lon="3.6566654432851933"><ele>671.6666666666666</ele><time>2026-04-03T07:09:52Z</time></trkpt><trkpt lat="44.18130531123551" lon="3.6566722031805696"><ele>673.3333333333334</ele><time>2026-04-03T07:09:53Z</time></trkpt><trkpt lat="44.18139890105883" lon="3.6566717547364314"><ele>675.0</ele><time>2026-04-03T07:09:54Z</time></trkpt><trkpt lat="44.18148020560041" lon="3.6566764386066035"><ele>676.6666666666666</ele><time>2026-04-03T07:09:55Z</time></trkpt><trkpt lat="44.18156153864517" lon="3.656678938219462"><ele>678.3333333333334</ele><time>2026-04-03T07:09:56Z</time></trkpt><trkpt lat="44.1816470762714" lon="3.6566801639750666"><ele>680.0</ele><time>2026-04-03T07:09:57Z</time></trkpt><trkpt lat="44.18172122175305" lon="3.6566859151627336"><ele>681.6666666666667</ele><time>2026-04-03T07:09:58Z</time></trkpt><trkpt lat="44.181786871284075" lon="3.6566939492299704"><ele>683.3333333333334</ele><time>2026-04-03T07:09:59Z</time></trkpt><trkpt lat="44.18186520993029" lon="3.656714570751519"><ele>685.0</ele><time>2026-04-03T07:10:00Z</time></trkpt><trkpt lat="44.18194786242132" lon="3.656755333094848"><ele>685.0</ele><time>2026-04-03T07:10:01Z</time></trkpt><trkpt lat="44.18202562533435" lon="3.6568208184763265"><ele>685.0</ele><time>2026-04-03T07:10:02Z</time></trkpt><trkpt lat="44.18210415298605" lon="3.6568929527425373"><ele>685.0</ele><time>2026-04-03T07:10:03Z</time></trkpt><trkpt lat="44.182184012551964" lon="3.6569603696326425"><ele>685.0</ele><time>2026-04-03T07:10:04Z</time></trkpt><trkpt lat="44.182265131461044" lon="3.6570352146955942"><ele>685.0</ele><time>2026-04-03T07:10:05Z</time></trkpt><trkpt lat="44.18234851248758" lon="3.657112329156763"><ele>681.4</ele><time>2026-04-03T07:10:06Z</time></trkpt><trkpt lat="44.182435728476946" lon="3.65718416812469"><ele>677.8</ele><time>2026-04-03T07:10:07Z</time></trkpt><trkpt lat="44.18252479131194" lon="3.657231157927551"><ele>674.2</ele><time>2026-04-03T07:10:08Z</time></trkpt><trkpt lat="44.182623816869615" lon="3.6572336381076194"><ele>670.6</ele><time>2026-04-03T07:10:09Z</time></trkpt><trkpt lat="44.18272782428902" lon="3.6571747455021413"><ele>667.0</ele><time>2026-04-03T07:10:10Z</time></trkpt><trkpt lat="44.182823178932416" lon="3.657101437485852"><ele>667.0</ele><time>2026-04-03T07:10:11Z</time></trkpt><trkpt lat="44.182904760644426" lon="3.657022588617631"><ele>667.0</ele><time>2026-04-03T07:10:12Z</time></trkpt><trkpt lat="44.18299991386383" lon="3.6569321404514974"><ele>667.0</ele><time>2026-04-03T07:10:13Z</time></trkpt><trkpt lat="44.183095577499955" lon="3.65685055616017"><ele>667.0</ele><time>2026-04-03T07:10:14Z</time></trkpt><trkpt lat="44.18320094240641" lon="3.656789845436731"><ele>667.0</ele><time>2026-04-03T07:10:15Z</time></trkpt><trkpt lat="44.18331468136383" lon="3.6567664645445577"><ele>666.25</ele><time>2026-04-03T07:10:16Z</time></trkpt><trkpt lat="44.18341674506972" lon="3.656821209075879"><ele>665.5</ele><time>2026-04-03T07:10:17Z</time></trkpt><trkpt lat="44.183523595446346" lon="3.6568777624602165"><ele>664.75</ele><time>2026-04-03T07:10:18Z</time></trkpt><trkpt lat="44.18363131275286" lon="3.6569520897951358"><ele>664.0</ele><time>2026-04-03T07:10:19Z</time></trkpt><trkpt lat="44.183744492068364" lon="3.656983591228532"><ele>664.0</ele><time>2026-04-03T07:10:20Z</time></trkpt><trkpt lat="44.183864998085326" lon="3.656969971941833"><ele>664.0</ele><time>2026-04-03T07:10:21Z</time></trkpt><trkpt lat="44.1839829140414" lon="3.6569223095508465"><ele>664.0</ele><time>2026-04-03T07:10:22Z</time></trkpt><trkpt lat="44.18410799828622" lon="3.6568419336542064"><ele>664.0</ele><time>2026-04-03T07:10:23Z</time></trkpt><trkpt lat="44.184249369832294" lon="3.656725373120226"><ele>675.0</ele><time>2026-04-03T07:10:24Z</time></trkpt><trkpt lat="44.18440653813202" lon="3.656681285703994"><ele>686.0</ele><time>2026-04-03T07:10:25Z</time></trkpt><trkpt lat="44.18455441477284" lon="3.6566677332669055"><ele>697.0</ele><time>2026-04-03T07:10:26Z</time></trkpt><trkpt lat="44.184706352468744" lon="3.6566917101160064"><ele>698.6666666666667</ele><time>2026-04-03T07:10:27Z</time></trkpt><trkpt lat="44.184855028659904" lon="3.65673013379831"><ele>700.3333333333334</ele><time>2026-04-03T07:10:28Z</time></trkpt><trkpt lat="44.18499694695643" lon="3.6568063358582843"><ele>702.0</ele><time>2026-04-03T07:10:29Z</time></trkpt><trkpt lat="44.185141117021466" lon="3.656844023856097"><ele>702.0</ele><time>2026-04-03T07:10:30Z</time></trkpt><trkpt lat="44.185306391748" lon="3.6568357820287267"><ele>702.0</ele><time>2026-04-03T07:10:31Z</time></trkpt><trkpt lat="44.18549078495234" lon="3.6567865294877175"><ele>702.0</ele><time>2026-04-03T07:10:32Z</time></trkpt><trkpt lat="44.18564343801237" lon="3.656734321784214"><ele>700.5</ele><time>2026-04-03T07:10:33Z</time></trkpt><trkpt lat="44.185777541346226" lon="3.6567064769589663"><ele>699.0</ele><time>2026-04-03T07:10:34Z</time></trkpt><trkpt lat="44.18589016392563" lon="3.656662312832927"><ele>697.5</ele><time>2026-04-03T07:10:35Z</time></trkpt><trkpt lat="44.18598229223854" lon="3.6565811009708016"><ele>696.0</ele><time>2026-04-03T07:10:36Z</time></trkpt><trkpt lat="44.186037103829015" lon="3.6564303099966518"><ele>696.0</ele><time>2026-04-03T07:10:37Z</time></trkpt><trkpt lat="44.18604840649487" lon="3.6562488353061617"><ele>696.0</ele><time>2026-04-03T07:10:38Z</time></trkpt><trkpt lat="44.186049339275336" lon="3.6560938542487555"><ele>696.0</ele><time>2026-04-03T07:10:39Z</time></trkpt><trkpt lat="44.18611159221943" lon="3.656037217587378"><ele>696.0</ele><time>2026-04-03T07:10:40Z</time></trkpt><trkpt lat="44.18618353881066" lon="3.65603988918647"><ele>696.0</ele><time>2026-04-03T07:10:41Z</time></trkpt><trkpt lat="44.18630357824962" lon="3.6560433051245442"><ele>700.3333333333334</ele><time>2026-04-03T07:10:42Z</time></trkpt><trkpt lat="44.18643994533304" lon="3.6560201861572885"><ele>704.6666666666667</ele><time>2026-04-03T07:10:43Z</time></trkpt><trkpt lat="44.186584363978675" lon="3.655921253565993"><ele>709.0</ele><time>2026-04-03T07:10:44Z</time></trkpt><trkpt lat="44.18671700760397" lon="3.6557662621810825"><ele>709.0</ele><time>2026-04-03T07:10:45Z</time></trkpt><trkpt lat="44.186836755213925" lon="3.655657018956969"><ele>709.0</ele><time>2026-04-03T07:10:46Z</time></trkpt><trkpt lat="44.18693268655778" lon="3.6555623588086386"><ele>709.0</ele><time>2026-04-03T07:10:47Z</time></trkpt><trkpt lat="44.18702686479426" lon="3.6555252154169233"><ele>709.0</ele><time>2026-04-03T07:10:48Z</time></trkpt><trkpt lat="44.18713166428949" lon="3.6556320389656554"><ele>709.0</ele><time>2026-04-03T07:10:49Z</time></trkpt><trkpt lat="44.18727341960276" lon="3.655681041080506"><ele>709.0</ele><time>2026-04-03T07:10:50Z</time></trkpt><trkpt lat="44.18741099774038" lon="3.6557232259023085"><ele>709.0</ele><time>2026-04-03T07:10:51Z</time></trkpt><trkpt lat="44.187539582629064" lon="3.6557168957644413"><ele>709.0</ele><time>2026-04-03T07:10:52Z</time></trkpt><trkpt lat="44.187670519834505" lon="3.655662272504923"><ele>708.0</ele><time>2026-04-03T07:10:53Z</time></trkpt><trkpt lat="44.18780430646526" lon="3.6555578896922523"><ele>707.0</ele><time>2026-04-03T07:10:54Z</time></trkpt><trkpt lat="44.18791418236537" lon="3.6554497257712213"><ele>706.0</ele><time>2026-04-03T07:10:55Z</time></trkpt><trkpt lat="44.1880018351599" lon="3.655324624593524"><ele>705.0</ele><time>2026-04-03T07:10:56Z</time></trkpt><trkpt lat="44.18808693009746" lon="3.655152920606816"><ele>708.75</ele><time>2026-04-03T07:10:57Z</time></trkpt><trkpt lat="44.188166822785206" lon="3.654967417185657"><ele>712.5</ele><time>2026-04-03T07:10:58Z</time></trkpt><trkpt lat="44.1882316249005" lon="3.6548136620911875"><ele>716.25</ele><time>2026-04-03T07:10:59Z</time></trkpt><trkpt lat="44.18827134554423" lon="3.6546670215969295"><ele>720.0</ele><time>2026-04-03T07:11:00Z</time></trkpt><trkpt lat="44.18828623861149" lon="3.654528569256783"><ele>723.6</ele><time>2026-04-03T07:11:01Z</time></trkpt><trkpt lat="44.18829086153789" lon="3.6544013786533363"><ele>727.2</ele><time>2026-04-03T07:11:02Z</time></trkpt><trkpt lat="44.188314992927126" lon="3.654307265658867"><ele>730.8</ele><time>2026-04-03T07:11:03Z</time></trkpt><trkpt lat="44.18844432132255" lon="3.6542593340467997"><ele>734.4</ele><time>2026-04-03T07:11:05Z</time></trkpt><trkpt lat="44.188502911096954" lon="3.6543597760679307"><ele>738.0</ele><time>2026-04-03T07:11:06Z</time></trkpt><trkpt lat="44.18858878915054" lon="3.654445589797074"><ele>738.0</ele><time>2026-04-03T07:11:07Z</time></trkpt><trkpt lat="44.18870107923899" lon="3.6545109359762273"><ele>738.0</ele><time>2026-04-03T07:11:08Z</time></trkpt><trkpt lat="44.18882259234308" lon="3.6544916211016205"><ele>738.0</ele><time>2026-04-03T07:11:09Z</time></trkpt><trkpt lat="44.18893537672874" lon="3.6544446065768526"><ele>738.0</ele><time>2026-04-03T07:11:10Z</time></trkpt><trkpt lat="44.18902854545902" lon="3.6544240719611247"><ele>737.3333333333334</ele><time>2026-04-03T07:11:11Z</time></trkpt><trkpt lat="44.1891053438336" lon="3.6544266337672218"><ele>736.6666666666666</ele><time>2026-04-03T07:11:12Z</time></trkpt><trkpt lat="44.18916534999677" lon="3.654471676386455"><ele>736.0</ele><time>2026-04-03T07:11:13Z</time></trkpt><trkpt lat="44.189201300151616" lon="3.6545569045475856"><ele>735.3333333333333</ele><time>2026-04-03T07:11:14Z</time></trkpt><trkpt lat="44.189205978073915" lon="3.654668059445742"><ele>734.6666666666666</ele><time>2026-04-03T07:11:15Z</time></trkpt><trkpt lat="44.18917488101939" lon="3.654801671292625"><ele>734.0</ele><time>2026-04-03T07:11:16Z</time></trkpt><trkpt lat="44.189123274725475" lon="3.654982656221359"><ele>734.0</ele><time>2026-04-03T07:11:17Z</time></trkpt><trkpt lat="44.18908435106178" lon="3.655173984329922"><ele>734.0</ele><time>2026-04-03T07:11:18Z</time></trkpt><trkpt lat="44.189070129069435" lon="3.6553540414014156"><ele>734.0</ele><time>2026-04-03T07:11:19Z</time></trkpt><trkpt lat="44.189065311434234" lon="3.655475398652"><ele>734.0</ele><time>2026-04-03T07:11:20Z</time></trkpt><trkpt lat="44.18908735753279" lon="3.6555607717240077"><ele>734.0</ele><time>2026-04-03T07:11:21Z</time></trkpt><trkpt lat="44.18914072443782" lon="3.6556201905904224"><ele>734.0</ele><time>2026-04-03T07:11:22Z</time></trkpt><trkpt lat="44.18922759167242" lon="3.6556237072422495"><ele>734.0</ele><time>2026-04-03T07:11:23Z</time></trkpt><trkpt lat="44.1893105071714" lon="3.6555718043034493"><ele>734.0</ele><time>2026-04-03T07:11:24Z</time></trkpt><trkpt lat="44.189390268458816" lon="3.655476491718822"><ele>734.0</ele><time>2026-04-03T07:11:25Z</time></trkpt><trkpt lat="44.18949854153583" lon="3.655345642460038"><ele>734.0</ele><time>2026-04-03T07:11:26Z</time></trkpt><trkpt lat="44.18963092367026" lon="3.6552121706439453"><ele>734.0</ele><time>2026-04-03T07:11:27Z</time></trkpt><trkpt lat="44.18977850682115" lon="3.655091996444327"><ele>734.0</ele><time>2026-04-03T07:11:28Z</time></trkpt><trkpt lat="44.18995523677249" lon="3.6549788251883513"><ele>734.0</ele><time>2026-04-03T07:11:29Z</time></trkpt><trkpt lat="44.190131054944146" lon="3.654870321917852"><ele>736.6666666666666</ele><time>2026-04-03T07:11:30Z</time></trkpt><trkpt lat="44.19029914349707" lon="3.6547621601218694"><ele>739.3333333333334</ele><time>2026-04-03T07:11:31Z</time></trkpt><trkpt lat="44.19048665226307" lon="3.654636538376939"><ele>742.0</ele><time>2026-04-03T07:11:32Z</time></trkpt><trkpt lat="44.1906443584158" lon="3.6545136332674915"><ele>745.6666666666667</ele><time>2026-04-03T07:11:33Z</time></trkpt><trkpt lat="44.19078837179079" lon="3.6543831268473825"><ele>749.3333333333334</ele><time>2026-04-03T07:11:34Z</time></trkpt><trkpt lat="44.19092716632755" lon="3.6542142883291735"><ele>753.0</ele><time>2026-04-03T07:11:35Z</time></trkpt><trkpt lat="44.19104905238636" lon="3.654013781312011"><ele>753.0</ele><time>2026-04-03T07:11:36Z</time></trkpt><trkpt lat="44.1911606778168" lon="3.653829980853192"><ele>753.0</ele><time>2026-04-03T07:11:37Z</time></trkpt><trkpt lat="44.19125554753394" lon="3.6536313792203736"><ele>753.0</ele><time>2026-04-03T07:11:38Z</time></trkpt><trkpt lat="44.191334721896055" lon="3.653415411082236"><ele>752.3333333333334</ele><time>2026-04-03T07:11:39Z</time></trkpt><trkpt lat="44.191418467667596" lon="3.653195897384335"><ele>751.6666666666667</ele><time>2026-04-03T07:11:40Z</time></trkpt><trkpt lat="44.19150789438989" lon="3.652998079361321"><ele>751.0</ele><time>2026-04-03T07:11:41Z</time></trkpt><trkpt lat="44.191595619790206" lon="3.652803204326606"><ele>755.5</ele><time>2026-04-03T07:11:42Z</time></trkpt><trkpt lat="44.19169992808396" lon="3.6526604172167723"><ele>760.0</ele><time>2026-04-03T07:11:43Z</time></trkpt><trkpt lat="44.191772753182576" lon="3.652501062197884"><ele>764.5</ele><time>2026-04-03T07:11:44Z</time></trkpt><trkpt lat="44.19184072779699" lon="3.6523989865824493"><ele>769.0</ele><time>2026-04-03T07:11:45Z</time></trkpt><trkpt lat="44.191909062667015" lon="3.652323894689182"><ele>769.0</ele><time>2026-04-03T07:11:46Z</time></trkpt><trkpt lat="44.191975083716905" lon="3.652288615387919"><ele>769.0</ele><time>2026-04-03T07:11:47Z</time></trkpt><trkpt lat="44.19208390339854" lon="3.65232870451672"><ele>769.0</ele><time>2026-04-03T07:11:49Z</time></trkpt><trkpt lat="44.192136701058324" lon="3.6524259297622677"><ele>769.0</ele><time>2026-04-03T07:11:50Z</time></trkpt><trkpt lat="44.19215280776603" lon="3.6525546049131408"><ele>769.0</ele><time>2026-04-03T07:11:51Z</time></trkpt><trkpt lat="44.192104976146375" lon="3.652686598925686"><ele>765.4000000000001</ele><time>2026-04-03T07:11:52Z</time></trkpt><trkpt lat="44.192083355810865" lon="3.6528252821191534"><ele>761.8</ele><time>2026-04-03T07:11:53Z</time></trkpt><trkpt lat="44.192050197195144" lon="3.6529509756407257"><ele>758.2</ele><time>2026-04-03T07:11:54Z</time></trkpt><trkpt lat="44.19206303226636" lon="3.6530672084401754"><ele>754.5999999999999</ele><time>2026-04-03T07:11:55Z</time></trkpt><trkpt lat="44.192130440599875" lon="3.6531710852127497"><ele>751.0</ele><time>2026-04-03T07:11:56Z</time></trkpt><trkpt lat="44.192213445760686" lon="3.653240449548407"><ele>751.0</ele><time>2026-04-03T07:11:57Z</time></trkpt><trkpt lat="44.19230936320767" lon="3.65331847407825"><ele>751.0</ele><time>2026-04-03T07:11:58Z</time></trkpt><trkpt lat="44.192407795154026" lon="3.653396067920618"><ele>751.0</ele><time>2026-04-03T07:11:59Z</time></trkpt><trkpt lat="44.19250315574861" lon="3.653460107986155"><ele>751.0</ele><time>2026-04-03T07:12:00Z</time></trkpt><trkpt lat="44.19260567197619" lon="3.6535111179489927"><ele>751.0</ele><time>2026-04-03T07:12:01Z</time></trkpt><trkpt lat="44.19271370380565" lon="3.6535121084609052"><ele>754.25</ele><time>2026-04-03T07:12:02Z</time></trkpt><trkpt lat="44.19281256252201" lon="3.6534339283182473"><ele>757.5</ele><time>2026-04-03T07:12:03Z</time></trkpt><trkpt lat="44.19290812461022" lon="3.6532968161997323"><ele>760.75</ele><time>2026-04-03T07:12:04Z</time></trkpt><trkpt lat="44.19300083944529" lon="3.65313303543759"><ele>764.0</ele><time>2026-04-03T07:12:05Z</time></trkpt><trkpt lat="44.193096580797004" lon="3.652962117441161"><ele>762.25</ele><time>2026-04-03T07:12:06Z</time></trkpt><trkpt lat="44.193190479485295" lon="3.652804307053066"><ele>760.5</ele><time>2026-04-03T07:12:07Z</time></trkpt><trkpt lat="44.1932763420221" lon="3.65266145606705"><ele>758.75</ele><time>2026-04-03T07:12:08Z</time></trkpt><trkpt lat="44.19335357855254" lon="3.6525339927003713"><ele>757.0</ele><time>2026-04-03T07:12:09Z</time></trkpt><trkpt lat="44.19341091149677" lon="3.6523903567863893"><ele>760.5</ele><time>2026-04-03T07:12:10Z</time></trkpt><trkpt lat="44.193447797060266" lon="3.652208920515751"><ele>764.0</ele><time>2026-04-03T07:12:11Z</time></trkpt><trkpt lat="44.19346778512625" lon="3.6520079852273333"><ele>767.5</ele><time>2026-04-03T07:12:12Z</time></trkpt><trkpt lat="44.19351041264722" lon="3.6518100604164143"><ele>771.0</ele><time>2026-04-03T07:12:13Z</time></trkpt><trkpt lat="44.19353675608769" lon="3.6516362658601196"><ele>773.5999999999999</ele><time>2026-04-03T07:12:14Z</time></trkpt><trkpt lat="44.1935618934743" lon="3.6514751351842185"><ele>776.2</ele><time>2026-04-03T07:12:15Z</time></trkpt><trkpt lat="44.193585677078964" lon="3.6513298404880974"><ele>778.8</ele><time>2026-04-03T07:12:16Z</time></trkpt><trkpt lat="44.193611062366955" lon="3.6512018377436997"><ele>781.4000000000001</ele><time>2026-04-03T07:12:17Z</time></trkpt><trkpt lat="44.1936379204176" lon="3.6511005807672663"><ele>784.0</ele><time>2026-04-03T07:12:18Z</time></trkpt><trkpt lat="44.19376527191247" lon="3.6510556503309446"><ele>784.0</ele><time>2026-04-03T07:12:20Z</time></trkpt><trkpt lat="44.193834111307304" lon="3.6511372606983272"><ele>784.0</ele><time>2026-04-03T07:12:21Z</time></trkpt><trkpt lat="44.193874459651454" lon="3.6512560979227953"><ele>784.0</ele><time>2026-04-03T07:12:22Z</time></trkpt><trkpt lat="44.193926051982004" lon="3.651369563340515"><ele>784.0</ele><time>2026-04-03T07:12:23Z</time></trkpt><trkpt lat="44.1939859323359" lon="3.6514888950225437"><ele>784.0</ele><time>2026-04-03T07:12:24Z</time></trkpt><trkpt lat="44.19407814883438" lon="3.6515835502929685"><ele>782.25</ele><time>2026-04-03T07:12:25Z</time></trkpt><trkpt lat="44.19417908298027" lon="3.6516896234061536"><ele>780.5</ele><time>2026-04-03T07:12:26Z</time></trkpt><trkpt lat="44.19427981636959" lon="3.6517968242483674"><ele>778.75</ele><time>2026-04-03T07:12:27Z</time></trkpt><trkpt lat="44.19437951450134" lon="3.6519075373131322"><ele>777.0</ele><time>2026-04-03T07:12:28Z</time></trkpt><trkpt lat="44.19447327097202" lon="3.652036375775436"><ele>773.25</ele><time>2026-04-03T07:12:29Z</time></trkpt><trkpt lat="44.19455577643369" lon="3.652180152981097"><ele>769.5</ele><time>2026-04-03T07:12:30Z</time></trkpt><trkpt lat="44.19463032555243" lon="3.6523437829019256"><ele>765.75</ele><time>2026-04-03T07:12:31Z</time></trkpt><trkpt lat="44.194695202000716" lon="3.6525179828873457"><ele>762.0</ele><time>2026-04-03T07:12:32Z</time></trkpt><trkpt lat="44.194755057645544" lon="3.6526764132854326"><ele>759.6</ele><time>2026-04-03T07:12:33Z</time></trkpt><trkpt lat="44.19479301534871" lon="3.652835768122535"><ele>757.2</ele><time>2026-04-03T07:12:34Z</time></trkpt><trkpt lat="44.19481977022267" lon="3.6529772317115596"><ele>754.8</ele><time>2026-04-03T07:12:35Z</time></trkpt><trkpt lat="44.19481487308452" lon="3.6531048876267067"><ele>752.4</ele><time>2026-04-03T07:12:36Z</time></trkpt><trkpt lat="44.194817018995195" lon="3.6532183824921125"><ele>750.0</ele><time>2026-04-03T07:12:37Z</time></trkpt><trkpt lat="44.19483054270878" lon="3.653330854616384"><ele>750.0</ele><time>2026-04-03T07:12:38Z</time></trkpt><trkpt lat="44.19481905658709" lon="3.6534386861817483"><ele>750.0</ele><time>2026-04-03T07:12:39Z</time></trkpt><trkpt lat="44.19481186450451" lon="3.653549430119447"><ele>750.0</ele><time>2026-04-03T07:12:40Z</time></trkpt><trkpt lat="44.19481355244412" lon="3.653674385063698"><ele>750.0</ele><time>2026-04-03T07:12:41Z</time></trkpt><trkpt lat="44.19481501146469" lon="3.6538031985949337"><ele>750.0</ele><time>2026-04-03T07:12:42Z</time></trkpt><trkpt lat="44.19481495456893" lon="3.6539418947194813"><ele>750.0</ele><time>2026-04-03T07:12:43Z</time></trkpt><trkpt lat="44.194809064611654" lon="3.6540887378852425"><ele>749.3333333333334</ele><time>2026-04-03T07:12:44Z</time></trkpt><trkpt lat="44.19480607060825" lon="3.6542241130488446"><ele>748.6666666666666</ele><time>2026-04-03T07:12:45Z</time></trkpt><trkpt lat="44.194822324413096" lon="3.654340916435757"><ele>748.0</ele><time>2026-04-03T07:12:46Z</time></trkpt><trkpt lat="44.19486378109979" lon="3.654430268639952"><ele>747.3333333333333</ele><time>2026-04-03T07:12:47Z</time></trkpt><trkpt lat="44.194927044008814" lon="3.6544978022369676"><ele>746.6666666666666</ele><time>2026-04-03T07:12:48Z</time></trkpt><trkpt lat="44.19498607724626" lon="3.654539057720819"><ele>746.0</ele><time>2026-04-03T07:12:49Z</time></trkpt><trkpt lat="44.19508949978077" lon="3.6546024274124234"><ele>753.0</ele><time>2026-04-03T07:12:51Z</time></trkpt><trkpt lat="44.195158118178625" lon="3.6546474255426005"><ele>760.0</ele><time>2026-04-03T07:12:53Z</time></trkpt><trkpt lat="44.195233159073176" lon="3.6544204176882067"><ele>767.0</ele><time>2026-04-03T07:13:09Z</time></trkpt><trkpt lat="44.19524991891728" lon="3.654328356361965"><ele>774.0</ele><time>2026-04-03T07:13:12Z</time></trkpt><trkpt lat="44.19521473643874" lon="3.6547350176238114"><ele>774.0</ele><time>2026-04-03T07:13:23Z</time></trkpt><trkpt lat="44.19520713126893" lon="3.6548438962474576"><ele>774.0</ele><time>2026-04-03T07:13:25Z</time></trkpt><trkpt lat="44.19517744979701" lon="3.6549553216594988"><ele>774.0</ele><time>2026-04-03T07:13:27Z</time></trkpt><trkpt lat="44.19516482304846" lon="3.6550763913036577"><ele>774.0</ele><time>2026-04-03T07:13:29Z</time></trkpt><trkpt lat="44.19515616669666" lon="3.6552093020299288"><ele>774.0</ele><time>2026-04-03T07:13:31Z</time></trkpt><trkpt lat="44.195131292476525" lon="3.6553417475022925"><ele>774.0</ele><time>2026-04-03T07:13:33Z</time></trkpt><trkpt lat="44.19512337107099" lon="3.6554762648338213"><ele>773.8333333333334</ele><time>2026-04-03T07:13:35Z</time></trkpt><trkpt lat="44.1951068340768" lon="3.6556055107274186"><ele>773.6666666666667</ele><time>2026-04-03T07:13:37Z</time></trkpt><trkpt lat="44.19508293258681" lon="3.6557291182933995"><ele>773.5</ele><time>2026-04-03T07:13:39Z</time></trkpt><trkpt lat="44.19507134774774" lon="3.6558487507549726"><ele>773.3333333333334</ele><time>2026-04-03T07:13:41Z</time></trkpt><trkpt lat="44.19505063112743" lon="3.6559550333383326"><ele>773.1666666666667</ele><time>2026-04-03T07:13:43Z</time></trkpt><trkpt lat="44.19503603725835" lon="3.65607904254062"><ele>773.0</ele><time>2026-04-03T07:13:45Z</time></trkpt><trkpt lat="44.195021571055065" lon="3.6562043915499243"><ele>773.0</ele><time>2026-04-03T07:13:47Z</time></trkpt><trkpt lat="44.19500178900285" lon="3.656340374268148"><ele>773.0</ele><time>2026-04-03T07:13:49Z</time></trkpt><trkpt lat="44.1949862612559" lon="3.656429234341446"><ele>773.0</ele><time>2026-04-03T07:13:52Z</time></trkpt><trkpt lat="44.195043832487" lon="3.656387319221447"><ele>773.0</ele><time>2026-04-03T07:13:58Z</time></trkpt><trkpt lat="44.1950476311202" lon="3.6562961973029724"><ele>773.0</ele><time>2026-04-03T07:14:00Z</time></trkpt><trkpt lat="44.19499769351875" lon="3.656224112344764"><ele>773.0</ele><time>2026-04-03T07:14:32Z</time></trkpt><trkpt lat="44.19506063477577" lon="3.656241860884635"><ele>773.0</ele><time>2026-04-03T07:15:04Z</time></trkpt><trkpt lat="44.1950477982731" lon="3.6560858728220538"><ele>772.8333333333334</ele><time>2026-04-03T07:15:41Z</time></trkpt><trkpt lat="44.19508435368822" lon="3.655917530016695"><ele>772.6666666666667</ele><time>2026-04-03T07:15:43Z</time></trkpt><trkpt lat="44.19510270394174" lon="3.655820554247093"><ele>772.5</ele><time>2026-04-03T07:15:44Z</time></trkpt><trkpt lat="44.19511435767263" lon="3.65572693196194"><ele>772.3333333333333</ele><time>2026-04-03T07:15:45Z</time></trkpt><trkpt lat="44.19512414989032" lon="3.655632290347507"><ele>772.1666666666666</ele><time>2026-04-03T07:15:46Z</time></trkpt><trkpt lat="44.19513732070676" lon="3.655527518507767"><ele>772.0</ele><time>2026-04-03T07:15:47Z</time></trkpt><trkpt lat="44.19515487421291" lon="3.655422254209972"><ele>771.9999999999999</ele><time>2026-04-03T07:15:48Z</time></trkpt><trkpt lat="44.19517014833603" lon="3.6553283666028418"><ele>772.0</ele><time>2026-04-03T07:15:49Z</time></trkpt><trkpt lat="44.19518132742582" lon="3.655237915891846"><ele>772.0</ele><time>2026-04-03T07:15:50Z</time></trkpt><trkpt lat="44.195195309089264" lon="3.655074455436105"><ele>772.0</ele><time>2026-04-03T07:15:52Z</time></trkpt><trkpt lat="44.19521986608704" lon="3.6549496159742074"><ele>771.9999999999999</ele><time>2026-04-03T07:15:54Z</time></trkpt><trkpt lat="44.19524440048535" lon="3.65486453478103"><ele>772.0</ele><time>2026-04-03T07:15:57Z</time></trkpt><trkpt lat="44.19517701441464" lon="3.65483487194726"><ele>771.9999999999999</ele><time>2026-04-03T07:16:01Z</time></trkpt><trkpt lat="44.19514971018112" lon="3.6549184029202713"><ele>772.0</ele><time>2026-04-03T07:16:03Z</time></trkpt><trkpt lat="44.195167284667946" lon="3.6550626573905616"><ele>772.0</ele><time>2026-04-03T07:16:05Z</time></trkpt><trkpt lat="44.195158666766424" lon="3.6552193072696357"><ele>772.0</ele><time>2026-04-03T07:16:07Z</time></trkpt><trkpt lat="44.19517090812488" lon="3.6553078020902405"><ele>771.9999999999999</ele><time>2026-04-03T07:16:08Z</time></trkpt><trkpt lat="44.19521946910651" lon="3.655391785475321"><ele>772.0</ele><time>2026-04-03T07:16:09Z</time></trkpt><trkpt lat="44.19529645420066" lon="3.655442508721606"><ele>772.0</ele><time>2026-04-03T07:16:10Z</time></trkpt><trkpt lat="44.19537429502729" lon="3.6554625887071035"><ele>772.0</ele><time>2026-04-03T07:16:11Z</time></trkpt><trkpt lat="44.1954451739639" lon="3.6554643784090626"><ele>772.0</ele><time>2026-04-03T07:16:12Z</time></trkpt><trkpt lat="44.195558699146645" lon="3.655494917437784"><ele>772.0</ele><time>2026-04-03T07:16:14Z</time></trkpt><trkpt lat="44.19564699632618" lon="3.6555418016657706"><ele>772.0</ele><time>2026-04-03T07:16:16Z</time></trkpt><trkpt lat="44.19569653949934" lon="3.6556709552108906"><ele>772.0</ele><time>2026-04-03T07:16:18Z</time></trkpt><trkpt lat="44.19573331056451" lon="3.6557773339417072"><ele>772.0</ele><time>2026-04-03T07:16:19Z</time></trkpt><trkpt lat="44.19577671867194" lon="3.6558997509572193"><ele>772.0</ele><time>2026-04-03T07:16:20Z</time></trkpt><trkpt lat="44.195815804883146" lon="3.6560168361342544"><ele>772.0</ele><time>2026-04-03T07:16:21Z</time></trkpt><trkpt lat="44.19585203275664" lon="3.6561386815181223"><ele>772.0</ele><time>2026-04-03T07:16:22Z</time></trkpt><trkpt lat="44.195872311123175" lon="3.6562866312582383"><ele>772.0</ele><time>2026-04-03T07:16:23Z</time></trkpt><trkpt lat="44.19587844416594" lon="3.6564600750410117"><ele>772.0</ele><time>2026-04-03T07:16:24Z</time></trkpt><trkpt lat="44.19587908902327" lon="3.6566498075657696"><ele>772.0</ele><time>2026-04-03T07:16:25Z</time></trkpt><trkpt lat="44.1958859922736" lon="3.656840853441136"><ele>772.0</ele><time>2026-04-03T07:16:26Z</time></trkpt><trkpt lat="44.19589288984832" lon="3.6570140252946985"><ele>771.6</ele><time>2026-04-03T07:16:27Z</time></trkpt><trkpt lat="44.19589847765906" lon="3.657168290231537"><ele>771.2</ele><time>2026-04-03T07:16:28Z</time></trkpt><trkpt lat="44.19589312271915" lon="3.6573002347348194"><ele>770.8</ele><time>2026-04-03T07:16:29Z</time></trkpt><trkpt lat="44.19587409610402" lon="3.6574420657282602"><ele>770.4</ele><time>2026-04-03T07:16:30Z</time></trkpt><trkpt lat="44.1958351101885" lon="3.6575894353884064"><ele>770.0</ele><time>2026-04-03T07:16:31Z</time></trkpt><trkpt lat="44.19577923545262" lon="3.6577594120258743"><ele>769.0</ele><time>2026-04-03T07:16:32Z</time></trkpt><trkpt lat="44.19573055630389" lon="3.6579298656081685"><ele>768.0</ele><time>2026-04-03T07:16:33Z</time></trkpt><trkpt lat="44.195668272778526" lon="3.6580908995761905"><ele>767.0</ele><time>2026-04-03T07:16:34Z</time></trkpt><trkpt lat="44.1956223702703" lon="3.658305701960144"><ele>766.0</ele><time>2026-04-03T07:16:35Z</time></trkpt><trkpt lat="44.19557503420436" lon="3.6585136481606897"><ele>767.6666666666667</ele><time>2026-04-03T07:16:36Z</time></trkpt><trkpt lat="44.19552893715628" lon="3.658726198836178"><ele>769.3333333333334</ele><time>2026-04-03T07:16:37Z</time></trkpt><trkpt lat="44.19548259993323" lon="3.6589524865331122"><ele>771.0</ele><time>2026-04-03T07:16:38Z</time></trkpt><trkpt lat="44.1954464795575" lon="3.6591755266321733"><ele>771.0</ele><time>2026-04-03T07:16:39Z</time></trkpt><trkpt lat="44.195410962742926" lon="3.6594027294665668"><ele>771.0</ele><time>2026-04-03T07:16:40Z</time></trkpt><trkpt lat="44.1953780810056" lon="3.6596284634471217"><ele>771.0</ele><time>2026-04-03T07:16:41Z</time></trkpt><trkpt lat="44.195349745785066" lon="3.659846186480754"><ele>770.5</ele><time>2026-04-03T07:16:42Z</time></trkpt><trkpt lat="44.195324484079165" lon="3.6600534317832505"><ele>770.0</ele><time>2026-04-03T07:16:43Z</time></trkpt><trkpt lat="44.195302047550314" lon="3.660245790630825"><ele>769.5</ele><time>2026-04-03T07:16:44Z</time></trkpt><trkpt lat="44.19527416559381" lon="3.6604204903613375"><ele>769.0</ele><time>2026-04-03T07:16:45Z</time></trkpt><trkpt lat="44.19522073764016" lon="3.6605558800364184"><ele>768.2</ele><time>2026-04-03T07:16:46Z</time></trkpt><trkpt lat="44.19515061046841" lon="3.660663839344124"><ele>767.4000000000001</ele><time>2026-04-03T07:16:47Z</time></trkpt><trkpt lat="44.19506405570076" lon="3.660731512347512"><ele>766.6</ele><time>2026-04-03T07:16:48Z</time></trkpt><trkpt lat="44.19498517280505" lon="3.6608204122501324"><ele>765.8</ele><time>2026-04-03T07:16:49Z</time></trkpt><trkpt lat="44.194934157110204" lon="3.660957600783195"><ele>765.0</ele><time>2026-04-03T07:16:50Z</time></trkpt><trkpt lat="44.19490871477039" lon="3.6611320559751883"><ele>764.6666666666666</ele><time>2026-04-03T07:16:51Z</time></trkpt><trkpt lat="44.1949067219081" lon="3.6613310043491256"><ele>764.3333333333333</ele><time>2026-04-03T07:16:52Z</time></trkpt><trkpt lat="44.194905999730594" lon="3.661547117262459"><ele>764.0</ele><time>2026-04-03T07:16:53Z</time></trkpt><trkpt lat="44.19490298390687" lon="3.6617716154530755"><ele>763.0</ele><time>2026-04-03T07:16:54Z</time></trkpt><trkpt lat="44.19487629960266" lon="3.6619965103182"><ele>762.0</ele><time>2026-04-03T07:16:55Z</time></trkpt><trkpt lat="44.19487195273284" lon="3.6622200595560557"><ele>761.0</ele><time>2026-04-03T07:16:56Z</time></trkpt><trkpt lat="44.19488708768751" lon="3.662443543548392"><ele>761.0</ele><time>2026-04-03T07:16:57Z</time></trkpt><trkpt lat="44.19489025896095" lon="3.6626662942532673"><ele>761.0</ele><time>2026-04-03T07:16:58Z</time></trkpt><trkpt lat="44.19489664975238" lon="3.6628763500644577"><ele>761.0</ele><time>2026-04-03T07:16:59Z</time></trkpt><trkpt lat="44.19491192081234" lon="3.6630997986232487"><ele>759.75</ele><time>2026-04-03T07:17:00Z</time></trkpt><trkpt lat="44.194919962686654" lon="3.663310372671582"><ele>758.5</ele><time>2026-04-03T07:17:01Z</time></trkpt><trkpt lat="44.19493047927928" lon="3.6635245036462982"><ele>757.25</ele><time>2026-04-03T07:17:02Z</time></trkpt><trkpt lat="44.194929334978134" lon="3.6637138547279777"><ele>756.0</ele><time>2026-04-03T07:17:03Z</time></trkpt><trkpt lat="44.19490942677112" lon="3.6638841220053715"><ele>764.0</ele><time>2026-04-03T07:17:04Z</time></trkpt><trkpt lat="44.194824743254884" lon="3.664043747562423"><ele>772.0</ele><time>2026-04-03T07:17:05Z</time></trkpt><trkpt lat="44.194742910133535" lon="3.664238433192438"><ele>780.0</ele><time>2026-04-03T07:17:06Z</time></trkpt><trkpt lat="44.19467767538136" lon="3.664445091778096"><ele>779.75</ele><time>2026-04-03T07:17:07Z</time></trkpt><trkpt lat="44.19461239521053" lon="3.6646288853230313"><ele>779.5</ele><time>2026-04-03T07:17:08Z</time></trkpt><trkpt lat="44.19458626926303" lon="3.6648246933546185"><ele>779.25</ele><time>2026-04-03T07:17:09Z</time></trkpt><trkpt lat="44.19461589674366" lon="3.665034168431407"><ele>779.0</ele><time>2026-04-03T07:17:10Z</time></trkpt><trkpt lat="44.19467710449414" lon="3.66526298087166"><ele>779.6666666666667</ele><time>2026-04-03T07:17:11Z</time></trkpt><trkpt lat="44.19473313368291" lon="3.6654980912180926"><ele>780.3333333333333</ele><time>2026-04-03T07:17:12Z</time></trkpt><trkpt lat="44.194785442346934" lon="3.6657433186192017"><ele>781.0</ele><time>2026-04-03T07:17:13Z</time></trkpt><trkpt lat="44.19483170371564" lon="3.665991018716991"><ele>772.0</ele><time>2026-04-03T07:17:14Z</time></trkpt><trkpt lat="44.19487356817678" lon="3.6662217822424443"><ele>763.0</ele><time>2026-04-03T07:17:15Z</time></trkpt><trkpt lat="44.194918479058195" lon="3.6664644140389147"><ele>754.0</ele><time>2026-04-03T07:17:16Z</time></trkpt><trkpt lat="44.19496151657566" lon="3.666700738247311"><ele>754.0</ele><time>2026-04-03T07:17:17Z</time></trkpt><trkpt lat="44.19498028876883" lon="3.666944961999669"><ele>754.0</ele><time>2026-04-03T07:17:18Z</time></trkpt><trkpt lat="44.19499876524941" lon="3.667172357578978"><ele>754.0</ele><time>2026-04-03T07:17:19Z</time></trkpt><trkpt lat="44.19503330889389" lon="3.667389142196696"><ele>754.0</ele><time>2026-04-03T07:17:20Z</time></trkpt><trkpt lat="44.195068936871486" lon="3.6676033549854954"><ele>754.0</ele><time>2026-04-03T07:17:21Z</time></trkpt><trkpt lat="44.19511148393917" lon="3.667807153447341"><ele>754.0</ele><time>2026-04-03T07:17:22Z</time></trkpt><trkpt lat="44.19516367233673" lon="3.6679975804555585"><ele>755.0</ele><time>2026-04-03T07:17:23Z</time></trkpt><trkpt lat="44.19521775752447" lon="3.668184941386235"><ele>756.0</ele><time>2026-04-03T07:17:24Z</time></trkpt><trkpt lat="44.195269365482254" lon="3.668373511125073"><ele>757.0</ele><time>2026-04-03T07:17:25Z</time></trkpt><trkpt lat="44.19531762886201" lon="3.668561132632355"><ele>758.0</ele><time>2026-04-03T07:17:26Z</time></trkpt><trkpt lat="44.195367976030376" lon="3.6687447036978584"><ele>759.75</ele><time>2026-04-03T07:17:27Z</time></trkpt><trkpt lat="44.19543470059555" lon="3.668913850766861"><ele>761.5</ele><time>2026-04-03T07:17:28Z</time></trkpt><trkpt lat="44.19553435489076" lon="3.6690559610623596"><ele>763.25</ele><time>2026-04-03T07:17:29Z</time></trkpt><trkpt lat="44.19564656048407" lon="3.6691777929730818"><ele>765.0</ele><time>2026-04-03T07:17:30Z</time></trkpt><trkpt lat="44.19576786433617" lon="3.6692927882912065"><ele>762.25</ele><time>2026-04-03T07:17:31Z</time></trkpt><trkpt lat="44.195880193904294" lon="3.6694138831812073"><ele>759.5</ele><time>2026-04-03T07:17:32Z</time></trkpt><trkpt lat="44.19599160571826" lon="3.669543456713031"><ele>756.75</ele><time>2026-04-03T07:17:33Z</time></trkpt><trkpt lat="44.19609965067457" lon="3.669672627741142"><ele>754.0</ele><time>2026-04-03T07:17:34Z</time></trkpt><trkpt lat="44.196205293972326" lon="3.6697989582380175"><ele>754.0</ele><time>2026-04-03T07:17:35Z</time></trkpt><trkpt lat="44.196306701148245" lon="3.669917124363795"><ele>754.0</ele><time>2026-04-03T07:17:36Z</time></trkpt><trkpt lat="44.196401725782074" lon="3.6700301031108196"><ele>754.0</ele><time>2026-04-03T07:17:37Z</time></trkpt><trkpt lat="44.196479171967304" lon="3.670157980268231"><ele>754.0</ele><time>2026-04-03T07:17:38Z</time></trkpt><trkpt lat="44.19651002401157" lon="3.670320938489868"><ele>752.75</ele><time>2026-04-03T07:17:39Z</time></trkpt><trkpt lat="44.196566028495525" lon="3.6704889612717793"><ele>751.5</ele><time>2026-04-03T07:17:40Z</time></trkpt><trkpt lat="44.19659818916817" lon="3.670661479064317"><ele>750.25</ele><time>2026-04-03T07:17:41Z</time></trkpt><trkpt lat="44.19662026568917" lon="3.670752607694021"><ele>749.0</ele><time>2026-04-03T07:17:42Z</time></trkpt><trkpt lat="44.196483417528476" lon="3.6707765707016384"><ele>749.0</ele><time>2026-04-03T07:17:46Z</time></trkpt><trkpt lat="44.1963973709108" lon="3.6707754706459648"><ele>749.0</ele><time>2026-04-03T07:17:47Z</time></trkpt><trkpt lat="44.19629767734502" lon="3.6707701629571234"><ele>749.0</ele><time>2026-04-03T07:17:48Z</time></trkpt><trkpt lat="44.1961788397297" lon="3.6707691584840423"><ele>749.0</ele><time>2026-04-03T07:17:49Z</time></trkpt><trkpt lat="44.19605964080662" lon="3.670789432424388"><ele>749.0</ele><time>2026-04-03T07:17:50Z</time></trkpt><trkpt lat="44.195949304231625" lon="3.6707786727243055"><ele>749.0</ele><time>2026-04-03T07:17:51Z</time></trkpt><trkpt lat="44.195843600642476" lon="3.670814603790844"><ele>749.0</ele><time>2026-04-03T07:17:52Z</time></trkpt><trkpt lat="44.19574477672246" lon="3.670866047455925"><ele>749.0</ele><time>2026-04-03T07:17:53Z</time></trkpt><trkpt lat="44.19564839109589" lon="3.6708740498826202"><ele>749.0</ele><time>2026-04-03T07:17:54Z</time></trkpt><trkpt lat="44.19556580592981" lon="3.6708794700147522"><ele>749.0</ele><time>2026-04-03T07:17:55Z</time></trkpt><trkpt lat="44.195486689024634" lon="3.6708715711777584"><ele>749.6</ele><time>2026-04-03T07:17:56Z</time></trkpt><trkpt lat="44.19540999734031" lon="3.6708332714134926"><ele>750.2</ele><time>2026-04-03T07:17:57Z</time></trkpt><trkpt lat="44.19533087285638" lon="3.6707603532256226"><ele>750.8000000000001</ele><time>2026-04-03T07:17:58Z</time></trkpt><trkpt lat="44.19523470178276" lon="3.6706900597428387"><ele>751.4000000000001</ele><time>2026-04-03T07:17:59Z</time></trkpt><trkpt lat="44.195146270882226" lon="3.670651107062965"><ele>752.0</ele><time>2026-04-03T07:18:00Z</time></trkpt><trkpt lat="44.195081832078046" lon="3.6705789168319423"><ele>752.0</ele><time>2026-04-03T07:18:01Z</time></trkpt><trkpt lat="44.19502511688108" lon="3.6704803366186156"><ele>752.0</ele><time>2026-04-03T07:18:02Z</time></trkpt><trkpt lat="44.19501934333488" lon="3.6703402344714107"><ele>752.0</ele><time>2026-04-03T07:18:03Z</time></trkpt><trkpt lat="44.19497693248156" lon="3.6702050187413304"><ele>752.0</ele><time>2026-04-03T07:18:04Z</time></trkpt><trkpt lat="44.19492371936209" lon="3.6700384640236643"><ele>752.0</ele><time>2026-04-03T07:18:05Z</time></trkpt><trkpt lat="44.19486440176866" lon="3.6698795084375675"><ele>756.75</ele><time>2026-04-03T07:18:06Z</time></trkpt><trkpt lat="44.19479659450236" lon="3.6697434224336023"><ele>761.5</ele><time>2026-04-03T07:18:07Z</time></trkpt><trkpt lat="44.194724117836365" lon="3.669616963661545"><ele>766.25</ele><time>2026-04-03T07:18:08Z</time></trkpt><trkpt lat="44.19456969198993" lon="3.6695778968390065"><ele>771.0</ele><time>2026-04-03T07:18:09Z</time></trkpt><trkpt lat="44.19444676938787" lon="3.669461600478866"><ele>774.3333333333333</ele><time>2026-04-03T07:18:10Z</time></trkpt><trkpt lat="44.19430653061416" lon="3.669356355439251"><ele>777.6666666666666</ele><time>2026-04-03T07:18:11Z</time></trkpt><trkpt lat="44.19415990321389" lon="3.6692494652603282"><ele>781.0</ele><time>2026-04-03T07:18:12Z</time></trkpt><trkpt lat="44.19402860034375" lon="3.669152087897614"><ele>781.6666666666666</ele><time>2026-04-03T07:18:13Z</time></trkpt><trkpt lat="44.193889581191556" lon="3.6690432658408607"><ele>782.3333333333333</ele><time>2026-04-03T07:18:14Z</time></trkpt><trkpt lat="44.19374040830643" lon="3.668930374613693"><ele>783.0</ele><time>2026-04-03T07:18:15Z</time></trkpt><trkpt lat="44.19359370352363" lon="3.6688133943258845"><ele>783.0</ele><time>2026-04-03T07:18:16Z</time></trkpt><trkpt lat="44.19345295435368" lon="3.6686935860625463"><ele>783.0</ele><time>2026-04-03T07:18:17Z</time></trkpt><trkpt lat="44.193324978280806" lon="3.668568545672783"><ele>783.0</ele><time>2026-04-03T07:18:18Z</time></trkpt><trkpt lat="44.193207027291535" lon="3.668441725808243"><ele>785.75</ele><time>2026-04-03T07:18:19Z</time></trkpt><trkpt lat="44.193096068058765" lon="3.6683164391286778"><ele>788.5</ele><time>2026-04-03T07:18:20Z</time></trkpt><trkpt lat="44.192978537096366" lon="3.6681837321815487"><ele>791.25</ele><time>2026-04-03T07:18:21Z</time></trkpt><trkpt lat="44.19286478667819" lon="3.668053213726342"><ele>794.0</ele><time>2026-04-03T07:18:22Z</time></trkpt><trkpt lat="44.19275736258616" lon="3.667920084330152"><ele>794.0</ele><time>2026-04-03T07:18:23Z</time></trkpt><trkpt lat="44.19265943838627" lon="3.6677837018657833"><ele>794.0</ele><time>2026-04-03T07:18:24Z</time></trkpt><trkpt lat="44.19258767701503" lon="3.6676671101361373"><ele>794.0</ele><time>2026-04-03T07:18:25Z</time></trkpt><trkpt lat="44.192532781688094" lon="3.6676164842842014"><ele>794.0</ele><time>2026-04-03T07:18:26Z</time></trkpt><trkpt lat="44.19248434894081" lon="3.6675313850734756"><ele>794.0</ele><time>2026-04-03T07:18:29Z</time></trkpt><trkpt lat="44.19233667412272" lon="3.6676807271092113"><ele>796.6666666666667</ele><time>2026-04-03T07:18:30Z</time></trkpt><trkpt lat="44.19222722831889" lon="3.667767865465039"><ele>799.3333333333333</ele><time>2026-04-03T07:18:31Z</time></trkpt><trkpt lat="44.192086357313286" lon="3.667870984858761"><ele>802.0</ele><time>2026-04-03T07:18:32Z</time></trkpt><trkpt lat="44.19192521249835" lon="3.667965872185879"><ele>802.0</ele><time>2026-04-03T07:18:33Z</time></trkpt><trkpt lat="44.19175285497533" lon="3.668056667569082"><ele>802.0</ele><time>2026-04-03T07:18:34Z</time></trkpt><trkpt lat="44.191561306493305" lon="3.668148615218328"><ele>802.0</ele><time>2026-04-03T07:18:35Z</time></trkpt><trkpt lat="44.191380764070104" lon="3.6682521592257076"><ele>807.3333333333333</ele><time>2026-04-03T07:18:36Z</time></trkpt><trkpt lat="44.19119031680776" lon="3.668362197816793"><ele>812.6666666666667</ele><time>2026-04-03T07:18:37Z</time></trkpt><trkpt lat="44.19097598483704" lon="3.6684758257569094"><ele>818.0</ele><time>2026-04-03T07:18:38Z</time></trkpt><trkpt lat="44.190748443189186" lon="3.6685783130814693"><ele>811.0</ele><time>2026-04-03T07:18:39Z</time></trkpt><trkpt lat="44.19051300739744" lon="3.6686631227671387"><ele>804.0</ele><time>2026-04-03T07:18:40Z</time></trkpt><trkpt lat="44.19027403389743" lon="3.668738103440008"><ele>804.0</ele><time>2026-04-03T07:18:41Z</time></trkpt><trkpt lat="44.19001867185629" lon="3.6688177250717753"><ele>804.0</ele><time>2026-04-03T07:18:42Z</time></trkpt><trkpt lat="44.189771203148354" lon="3.6688985710164994"><ele>809.0</ele><time>2026-04-03T07:18:43Z</time></trkpt><trkpt lat="44.18952676143904" lon="3.668983664026885"><ele>814.0</ele><time>2026-04-03T07:18:44Z</time></trkpt><trkpt lat="44.189291814598874" lon="3.6690586177940645"><ele>814.0</ele><time>2026-04-03T07:18:45Z</time></trkpt><trkpt lat="44.18907256468388" lon="3.6691325343497185"><ele>814.0</ele><time>2026-04-03T07:18:46Z</time></trkpt><trkpt lat="44.18888008533787" lon="3.6692049585717577"><ele>814.0</ele><time>2026-04-03T07:18:47Z</time></trkpt><trkpt lat="44.18866437940364" lon="3.669263471518316"><ele>820.0</ele><time>2026-04-03T07:18:48Z</time></trkpt><trkpt lat="44.18844116966596" lon="3.669274284444099"><ele>826.0</ele><time>2026-04-03T07:18:49Z</time></trkpt><trkpt lat="44.18821677693083" lon="3.669228054960796"><ele>829.3333333333333</ele><time>2026-04-03T07:18:50Z</time></trkpt><trkpt lat="44.188009415660055" lon="3.669169981437275"><ele>832.6666666666667</ele><time>2026-04-03T07:18:51Z</time></trkpt><trkpt lat="44.187818854099234" lon="3.669136612610074"><ele>836.0</ele><time>2026-04-03T07:18:52Z</time></trkpt><trkpt lat="44.187623487112745" lon="3.6691595060479507"><ele>836.0</ele><time>2026-04-03T07:18:53Z</time></trkpt><trkpt lat="44.18742764939391" lon="3.6692216089437064"><ele>836.0</ele><time>2026-04-03T07:18:54Z</time></trkpt><trkpt lat="44.187249440876684" lon="3.6693031937930884"><ele>836.0</ele><time>2026-04-03T07:18:55Z</time></trkpt><trkpt lat="44.18709152260413" lon="3.6693752698402933"><ele>833.0</ele><time>2026-04-03T07:18:56Z</time></trkpt><trkpt lat="44.18694772757941" lon="3.6694676446627876"><ele>830.0</ele><time>2026-04-03T07:18:57Z</time></trkpt><trkpt lat="44.18682185883595" lon="3.6695834255286215"><ele>827.0</ele><time>2026-04-03T07:18:58Z</time></trkpt><trkpt lat="44.18670871829195" lon="3.6697094231228893"><ele>827.0000000000001</ele><time>2026-04-03T07:18:59Z</time></trkpt><trkpt lat="44.186618659344425" lon="3.6698330660713396"><ele>827.0</ele><time>2026-04-03T07:19:00Z</time></trkpt><trkpt lat="44.18656346721204" lon="3.6699131868683983"><ele>827.0</ele><time>2026-04-03T07:19:01Z</time></trkpt><trkpt lat="44.18650962420482" lon="3.670005389330165"><ele>827.0</ele><time>2026-04-03T07:19:03Z</time></trkpt><trkpt lat="44.18645620955105" lon="3.6700529920370744"><ele>827.0000000000001</ele><time>2026-04-03T07:19:22Z</time></trkpt><trkpt lat="44.18641744136392" lon="3.670167353146019"><ele>827.0</ele><time>2026-04-03T07:19:25Z</time></trkpt><trkpt lat="44.1863632822568" lon="3.6703879129466617"><ele>829.8</ele><time>2026-04-03T07:19:27Z</time></trkpt><trkpt lat="44.1863226462937" lon="3.6705410013281328"><ele>832.6</ele><time>2026-04-03T07:19:28Z</time></trkpt><trkpt lat="44.18628459221999" lon="3.6706766417506222"><ele>835.4</ele><time>2026-04-03T07:19:29Z</time></trkpt><trkpt lat="44.18624891238701" lon="3.670797462847403"><ele>838.1999999999999</ele><time>2026-04-03T07:19:30Z</time></trkpt><trkpt lat="44.18621446018606" lon="3.6709027954656426"><ele>841.0</ele><time>2026-04-03T07:19:31Z</time></trkpt><trkpt lat="44.186178715084914" lon="3.6710046676208345"><ele>839.4999999999999</ele><time>2026-04-03T07:19:32Z</time></trkpt><trkpt lat="44.18613525403536" lon="3.6711216036420313"><ele>838.0</ele><time>2026-04-03T07:19:33Z</time></trkpt><trkpt lat="44.18609122273887" lon="3.671224910717498"><ele>836.5</ele><time>2026-04-03T07:19:34Z</time></trkpt><trkpt lat="44.18603817166805" lon="3.6713125196530987"><ele>835.0</ele><time>2026-04-03T07:19:35Z</time></trkpt><trkpt lat="44.18598333764879" lon="3.6713974097033955"><ele>833.4999999999999</ele><time>2026-04-03T07:19:36Z</time></trkpt><trkpt lat="44.185929614986605" lon="3.671472226847004"><ele>832.0</ele><time>2026-04-03T07:19:37Z</time></trkpt><trkpt lat="44.18587754265771" lon="3.671537144928512"><ele>866.0</ele><time>2026-04-03T07:19:38Z</time></trkpt><trkpt lat="44.185290253555834" lon="3.6711468067077915"><ele>866.0</ele><time>2026-04-03T07:19:39Z</time></trkpt><trkpt lat="44.1852131934121" lon="3.6711832527236314"><ele>865.9999999999999</ele><time>2026-04-03T07:19:40Z</time></trkpt><trkpt lat="44.18512565427726" lon="3.6712165819184817"><ele>865.9999999999999</ele><time>2026-04-03T07:19:42Z</time></trkpt><trkpt lat="44.18501077042972" lon="3.6713180056480854"><ele>866.0</ele><time>2026-04-03T07:19:44Z</time></trkpt><trkpt lat="44.18494416773717" lon="3.6713898034697836"><ele>866.0</ele><time>2026-04-03T07:19:45Z</time></trkpt><trkpt lat="44.18489065095558" lon="3.671440754683892"><ele>872.0</ele><time>2026-04-03T07:19:46Z</time></trkpt><trkpt lat="44.18481113068792" lon="3.6715463842340132"><ele>877.9999999999999</ele><time>2026-04-03T07:19:48Z</time></trkpt><trkpt lat="44.18478127117605" lon="3.6716653011538902"><ele>883.9999999999999</ele><time>2026-04-03T07:19:50Z</time></trkpt><trkpt lat="44.18472220043953" lon="3.671718549934957"><ele>890.0</ele><time>2026-04-03T07:19:52Z</time></trkpt><trkpt lat="44.184650478371125" lon="3.6717554046448226"><ele>896.0</ele><time>2026-04-03T07:19:54Z</time></trkpt><trkpt lat="44.18451343695602" lon="3.6718100240188933"><ele>896.0000000000001</ele><time>2026-04-03T07:19:56Z</time></trkpt><trkpt lat="44.18444119938" lon="3.6718899973648242"><ele>896.0</ele><time>2026-04-03T07:19:57Z</time></trkpt><trkpt lat="44.18439049508331" lon="3.671964837132451"><ele>896.0</ele><time>2026-04-03T07:19:58Z</time></trkpt><trkpt lat="44.184325050988235" lon="3.672049959499739"><ele>896.0</ele><time>2026-04-03T07:19:59Z</time></trkpt><trkpt lat="44.18426690979867" lon="3.6721262807315944"><ele>896.0000000000001</ele><time>2026-04-03T07:20:00Z</time></trkpt><trkpt lat="44.184214365244245" lon="3.6722052358633035"><ele>896.0</ele><time>2026-04-03T07:20:01Z</time></trkpt><trkpt lat="44.18416822494314" lon="3.6722666636214103"><ele>894.5000000000001</ele><time>2026-04-03T07:20:02Z</time></trkpt><trkpt lat="44.184126843394765" lon="3.672351466556743"><ele>893.0</ele><time>2026-04-03T07:20:03Z</time></trkpt><trkpt lat="44.184103144400645" lon="3.672439628102963"><ele>891.5</ele><time>2026-04-03T07:20:04Z</time></trkpt><trkpt lat="44.18400911618471" lon="3.672559396109121"><ele>890.0</ele><time>2026-04-03T07:20:06Z</time></trkpt><trkpt lat="44.18393473493202" lon="3.672612518807291"><ele>888.5000000000001</ele><time>2026-04-03T07:20:07Z</time></trkpt><trkpt lat="44.183859030357844" lon="3.672653647256499"><ele>887.0</ele><time>2026-04-03T07:20:08Z</time></trkpt><trkpt lat="44.183778157096825" lon="3.672699913993616"><ele>888.6</ele><time>2026-04-03T07:20:09Z</time></trkpt><trkpt lat="44.18370315913867" lon="3.672739996144135"><ele>890.2</ele><time>2026-04-03T07:20:10Z</time></trkpt><trkpt lat="44.183640465021675" lon="3.6727844572921544"><ele>891.8</ele><time>2026-04-03T07:20:11Z</time></trkpt><trkpt lat="44.183606043814464" lon="3.6728845989448438"><ele>893.4</ele><time>2026-04-03T07:20:13Z</time></trkpt><trkpt lat="44.18354869838941" lon="3.673068948384992"><ele>895.0</ele><time>2026-04-03T07:20:15Z</time></trkpt><trkpt lat="44.183491907391556" lon="3.6732008131719858"><ele>895.0</ele><time>2026-04-03T07:20:16Z</time></trkpt><trkpt lat="44.18343294257611" lon="3.6733645838431226"><ele>895.0</ele><time>2026-04-03T07:20:17Z</time></trkpt><trkpt lat="44.18336536956731" lon="3.6735007910594337"><ele>895.0</ele><time>2026-04-03T07:20:18Z</time></trkpt><trkpt lat="44.18330175527271" lon="3.6736731365421385"><ele>895.0</ele><time>2026-04-03T07:20:19Z</time></trkpt><trkpt lat="44.18325420993021" lon="3.673811814662498"><ele>898.0</ele><time>2026-04-03T07:20:20Z</time></trkpt><trkpt lat="44.18321495525934" lon="3.673961832941781"><ele>901.0</ele><time>2026-04-03T07:20:21Z</time></trkpt><trkpt lat="44.18317002107209" lon="3.6741061378779487"><ele>904.0</ele><time>2026-04-03T07:20:22Z</time></trkpt><trkpt lat="44.1831238623755" lon="3.674253687530408"><ele>907.0</ele><time>2026-04-03T07:20:23Z</time></trkpt><trkpt lat="44.18305715757086" lon="3.674408249712792"><ele>904.0</ele><time>2026-04-03T07:20:24Z</time></trkpt><trkpt lat="44.1829724287546" lon="3.6745486302499875"><ele>901.0</ele><time>2026-04-03T07:20:25Z</time></trkpt><trkpt lat="44.18289633478329" lon="3.674680892312826"><ele>898.0</ele><time>2026-04-03T07:20:26Z</time></trkpt><trkpt lat="44.18283253330089" lon="3.6748314601779706"><ele>895.0</ele><time>2026-04-03T07:20:27Z</time></trkpt><trkpt lat="44.18278121756338" lon="3.6749694172031613"><ele>894.9999999999999</ele><time>2026-04-03T07:20:28Z</time></trkpt><trkpt lat="44.18274187833598" lon="3.6750744977373566"><ele>895.0</ele><time>2026-04-03T07:20:29Z</time></trkpt><trkpt lat="44.18269303428148" lon="3.6752003590446956"><ele>895.0</ele><time>2026-04-03T07:20:30Z</time></trkpt><trkpt lat="44.18263910472353" lon="3.6752861139412305"><ele>895.0</ele><time>2026-04-03T07:20:31Z</time></trkpt><trkpt lat="44.18255999800101" lon="3.6753401124436342"><ele>894.9999999999999</ele><time>2026-04-03T07:20:32Z</time></trkpt><trkpt lat="44.18248546619158" lon="3.6753705894391677"><ele>895.0</ele><time>2026-04-03T07:20:33Z</time></trkpt><trkpt lat="44.18241059077213" lon="3.6754453329216092"><ele>897.2</ele><time>2026-04-03T07:20:34Z</time></trkpt><trkpt lat="44.1823505995412" lon="3.67556363438222"><ele>899.4</ele><time>2026-04-03T07:20:35Z</time></trkpt><trkpt lat="44.182317203643905" lon="3.675678813482373"><ele>901.5999999999999</ele><time>2026-04-03T07:20:36Z</time></trkpt><trkpt lat="44.182298971735435" lon="3.6758157824907376"><ele>903.8</ele><time>2026-04-03T07:20:37Z</time></trkpt><trkpt lat="44.18226945866931" lon="3.6759232374104873"><ele>906.0</ele><time>2026-04-03T07:20:38Z</time></trkpt><trkpt lat="44.18221382708743" lon="3.6760350100046337"><ele>904.0</ele><time>2026-04-03T07:20:39Z</time></trkpt><trkpt lat="44.182137996620014" lon="3.6761481086224546"><ele>901.9999999999999</ele><time>2026-04-03T07:20:40Z</time></trkpt><trkpt lat="44.18207022774979" lon="3.6762835518585155"><ele>899.9999999999999</ele><time>2026-04-03T07:20:41Z</time></trkpt><trkpt lat="44.182026115854406" lon="3.6764159059123056"><ele>898.0</ele><time>2026-04-03T07:20:42Z</time></trkpt><trkpt lat="44.18198593660533" lon="3.676539243183159"><ele>896.0</ele><time>2026-04-03T07:20:43Z</time></trkpt><trkpt lat="44.18195564786759" lon="3.67662520420186"><ele>896.0</ele><time>2026-04-03T07:20:44Z</time></trkpt><trkpt lat="44.18192531884813" lon="3.676726677206023"><ele>895.9999999999999</ele><time>2026-04-03T07:20:45Z</time></trkpt><trkpt lat="44.18186669557255" lon="3.6768600327769945"><ele>895.9999999999999</ele><time>2026-04-03T07:20:46Z</time></trkpt><trkpt lat="44.181801977896086" lon="3.6770082472128354"><ele>896.0</ele><time>2026-04-03T07:20:47Z</time></trkpt><trkpt lat="44.18176188525926" lon="3.6771267089129207"><ele>896.0</ele><time>2026-04-03T07:20:48Z</time></trkpt><trkpt lat="44.18173395503834" lon="3.677235289259393"><ele>894.8</ele><time>2026-04-03T07:20:49Z</time></trkpt><trkpt lat="44.18171441421419" lon="3.677351087390267"><ele>893.5999999999999</ele><time>2026-04-03T07:20:51Z</time></trkpt><trkpt lat="44.181658783182314" lon="3.677460984957884"><ele>892.4</ele><time>2026-04-03T07:20:53Z</time></trkpt><trkpt lat="44.18163286396605" lon="3.6775845241392497"><ele>891.2</ele><time>2026-04-03T07:20:54Z</time></trkpt><trkpt lat="44.18162233911116" lon="3.6777282310134463"><ele>890.0</ele><time>2026-04-03T07:20:55Z</time></trkpt><trkpt lat="44.181629783665784" lon="3.6778939487206648"><ele>890.0</ele><time>2026-04-03T07:20:56Z</time></trkpt><trkpt lat="44.18161400660698" lon="3.6780962397567105"><ele>890.0</ele><time>2026-04-03T07:20:57Z</time></trkpt><trkpt lat="44.18159638770205" lon="3.6782937213769826"><ele>890.0</ele><time>2026-04-03T07:20:58Z</time></trkpt><trkpt lat="44.181586421676734" lon="3.67849223117919"><ele>890.0</ele><time>2026-04-03T07:20:59Z</time></trkpt><trkpt lat="44.1815799101972" lon="3.678678568094268"><ele>891.5</ele><time>2026-04-03T07:21:00Z</time></trkpt><trkpt lat="44.18156274407654" lon="3.678860509222516"><ele>893.0</ele><time>2026-04-03T07:21:01Z</time></trkpt><trkpt lat="44.18156563316846" lon="3.6790239645326563"><ele>894.5</ele><time>2026-04-03T07:21:02Z</time></trkpt><trkpt lat="44.181588231239004" lon="3.6791934033415936"><ele>896.0</ele><time>2026-04-03T07:21:03Z</time></trkpt><trkpt lat="44.18161845723164" lon="3.6793503920477497"><ele>897.5</ele><time>2026-04-03T07:21:04Z</time></trkpt><trkpt lat="44.18163325377786" lon="3.679525410075565"><ele>899.0</ele><time>2026-04-03T07:21:05Z</time></trkpt><trkpt lat="44.18161517577328" lon="3.6796804679383346"><ele>900.5</ele><time>2026-04-03T07:21:06Z</time></trkpt><trkpt lat="44.18158940241106" lon="3.6798730652389544"><ele>902.0</ele><time>2026-04-03T07:21:07Z</time></trkpt><trkpt lat="44.18156259498685" lon="3.680098493884124"><ele>908.5</ele><time>2026-04-03T07:21:08Z</time></trkpt><trkpt lat="44.18150624822739" lon="3.680293315054879"><ele>915.0</ele><time>2026-04-03T07:21:09Z</time></trkpt><trkpt lat="44.18148470308479" lon="3.6804895984052695"><ele>921.5</ele><time>2026-04-03T07:21:10Z</time></trkpt><trkpt lat="44.18147673945144" lon="3.6806867014540416"><ele>928.0</ele><time>2026-04-03T07:21:11Z</time></trkpt><trkpt lat="44.18147634226246" lon="3.6808893370209406"><ele>928.0</ele><time>2026-04-03T07:21:12Z</time></trkpt><trkpt lat="44.18146567066706" lon="3.681095434460506"><ele>928.0</ele><time>2026-04-03T07:21:13Z</time></trkpt><trkpt lat="44.18145764943917" lon="3.681284102146598"><ele>928.0</ele><time>2026-04-03T07:21:14Z</time></trkpt><trkpt lat="44.18144257433431" lon="3.6814499408295775"><ele>928.0</ele><time>2026-04-03T07:21:15Z</time></trkpt><trkpt lat="44.18142109411686" lon="3.6816427476690636"><ele>926.0</ele><time>2026-04-03T07:21:16Z</time></trkpt><trkpt lat="44.18138176848869" lon="3.681851675749806"><ele>924.0</ele><time>2026-04-03T07:21:17Z</time></trkpt><trkpt lat="44.18136686219811" lon="3.6820306527600155"><ele>922.0</ele><time>2026-04-03T07:21:18Z</time></trkpt><trkpt lat="44.181334205135705" lon="3.6821722370642833"><ele>920.0</ele><time>2026-04-03T07:21:19Z</time></trkpt><trkpt lat="44.18127533765255" lon="3.682291476791207"><ele>917.75</ele><time>2026-04-03T07:21:20Z</time></trkpt><trkpt lat="44.18119395952028" lon="3.6823959161250213"><ele>915.5</ele><time>2026-04-03T07:21:21Z</time></trkpt><trkpt lat="44.181094956663046" lon="3.6824922235538473"><ele>913.25</ele><time>2026-04-03T07:21:22Z</time></trkpt><trkpt lat="44.18097701733607" lon="3.6825874712194206"><ele>911.0</ele><time>2026-04-03T07:21:23Z</time></trkpt><trkpt lat="44.18083060682314" lon="3.6826918065722523"><ele>908.5</ele><time>2026-04-03T07:21:24Z</time></trkpt><trkpt lat="44.18070665810045" lon="3.6827682487883133"><ele>906.0</ele><time>2026-04-03T07:21:25Z</time></trkpt><trkpt lat="44.1805864208214" lon="3.682835644840545"><ele>903.5</ele><time>2026-04-03T07:21:26Z</time></trkpt><trkpt lat="44.18045159275591" lon="3.6829230589379067"><ele>901.0</ele><time>2026-04-03T07:21:27Z</time></trkpt><trkpt lat="44.18033312159077" lon="3.6830109132452655"><ele>901.0</ele><time>2026-04-03T07:21:28Z</time></trkpt><trkpt lat="44.1802164198121" lon="3.683095513464963"><ele>901.0</ele><time>2026-04-03T07:21:29Z</time></trkpt><trkpt lat="44.180104992288086" lon="3.683204109192645"><ele>901.0</ele><time>2026-04-03T07:21:30Z</time></trkpt><trkpt lat="44.17997186535812" lon="3.683322165339882"><ele>901.0</ele><time>2026-04-03T07:21:31Z</time></trkpt><trkpt lat="44.17984544683997" lon="3.6834232572808925"><ele>898.25</ele><time>2026-04-03T07:21:32Z</time></trkpt><trkpt lat="44.17972744652667" lon="3.683514750532497"><ele>895.5</ele><time>2026-04-03T07:21:33Z</time></trkpt><trkpt lat="44.179622963171816" lon="3.6835865445721754"><ele>892.75</ele><time>2026-04-03T07:21:34Z</time></trkpt><trkpt lat="44.17952325806148" lon="3.68365974404173"><ele>890.0</ele><time>2026-04-03T07:21:35Z</time></trkpt><trkpt lat="44.17941607430873" lon="3.6837292691465486"><ele>890.0</ele><time>2026-04-03T07:21:36Z</time></trkpt><trkpt lat="44.179318038253506" lon="3.683799961310641"><ele>890.0</ele><time>2026-04-03T07:21:37Z</time></trkpt><trkpt lat="44.179224105346" lon="3.683893192033398"><ele>890.0</ele><time>2026-04-03T07:21:38Z</time></trkpt><trkpt lat="44.17914523311175" lon="3.6839833588060564"><ele>890.0</ele><time>2026-04-03T07:21:39Z</time></trkpt><trkpt lat="44.17906732811738" lon="3.684062415869017"><ele>890.0</ele><time>2026-04-03T07:21:40Z</time></trkpt><trkpt lat="44.17896384750183" lon="3.684154228099563"><ele>892.25</ele><time>2026-04-03T07:21:41Z</time></trkpt><trkpt lat="44.17888182074096" lon="3.684242498206385"><ele>894.5</ele><time>2026-04-03T07:21:42Z</time></trkpt><trkpt lat="44.178788462658204" lon="3.684340319811977"><ele>896.75</ele><time>2026-04-03T07:21:43Z</time></trkpt><trkpt lat="44.17867666647071" lon="3.684428003865357"><ele>899.0</ele><time>2026-04-03T07:21:44Z</time></trkpt><trkpt lat="44.17857416030513" lon="3.684520277165856"><ele>897.6</ele><time>2026-04-03T07:21:45Z</time></trkpt><trkpt lat="44.178473858273804" lon="3.6845851682853032"><ele>896.2</ele><time>2026-04-03T07:21:46Z</time></trkpt><trkpt lat="44.17839584550905" lon="3.6846695194621053"><ele>894.8000000000001</ele><time>2026-04-03T07:21:47Z</time></trkpt><trkpt lat="44.17832320327612" lon="3.6847294567240154"><ele>893.4000000000001</ele><time>2026-04-03T07:21:48Z</time></trkpt><trkpt lat="44.178253826943454" lon="3.684786010493359"><ele>892.0</ele><time>2026-04-03T07:21:49Z</time></trkpt><trkpt lat="44.17818488951906" lon="3.6848641812534666"><ele>892.0</ele><time>2026-04-03T07:21:50Z</time></trkpt><trkpt lat="44.17809043363016" lon="3.684986714294145"><ele>892.0</ele><time>2026-04-03T07:21:51Z</time></trkpt><trkpt lat="44.17797934276815" lon="3.685098518804684"><ele>892.0</ele><time>2026-04-03T07:21:52Z</time></trkpt><trkpt lat="44.17787386014721" lon="3.68520039465665"><ele>892.0</ele><time>2026-04-03T07:21:53Z</time></trkpt><trkpt lat="44.17777252626972" lon="3.685304915531035"><ele>888.25</ele><time>2026-04-03T07:21:54Z</time></trkpt><trkpt lat="44.17767269379721" lon="3.6854264430820334"><ele>884.5</ele><time>2026-04-03T07:21:55Z</time></trkpt><trkpt lat="44.17757838280336" lon="3.685542921523688"><ele>880.75</ele><time>2026-04-03T07:21:56Z</time></trkpt><trkpt lat="44.1774733833041" lon="3.685641184414242"><ele>877.0</ele><time>2026-04-03T07:21:57Z</time></trkpt><trkpt lat="44.17736873492168" lon="3.6857142308121325"><ele>879.0</ele><time>2026-04-03T07:21:58Z</time></trkpt><trkpt lat="44.17726072939129" lon="3.6857805793227385"><ele>881.0</ele><time>2026-04-03T07:21:59Z</time></trkpt><trkpt lat="44.17716081219229" lon="3.6858460839724447"><ele>883.0</ele><time>2026-04-03T07:22:00Z</time></trkpt><trkpt lat="44.17705197600878" lon="3.6859170091123175"><ele>885.0</ele><time>2026-04-03T07:22:01Z</time></trkpt><trkpt lat="44.176940017322124" lon="3.686019436043723"><ele>882.0</ele><time>2026-04-03T07:22:02Z</time></trkpt><trkpt lat="44.1768366343433" lon="3.6861348881045304"><ele>879.0</ele><time>2026-04-03T07:22:03Z</time></trkpt><trkpt lat="44.17674765481355" lon="3.6862380125806187"><ele>876.0</ele><time>2026-04-03T07:22:04Z</time></trkpt><trkpt lat="44.17664411998625" lon="3.6863124508702256"><ele>873.0</ele><time>2026-04-03T07:22:05Z</time></trkpt><trkpt lat="44.17654430426643" lon="3.686382349556531"><ele>874.0</ele><time>2026-04-03T07:22:06Z</time></trkpt><trkpt lat="44.176448904023914" lon="3.6864371963354388"><ele>875.0</ele><time>2026-04-03T07:22:07Z</time></trkpt><trkpt lat="44.17634855723145" lon="3.686467269633944"><ele>876.0</ele><time>2026-04-03T07:22:08Z</time></trkpt><trkpt lat="44.17622083417621" lon="3.6865154226876173"><ele>877.0</ele><time>2026-04-03T07:22:09Z</time></trkpt><trkpt lat="44.17613007932703" lon="3.6865274656423828"><ele>878.0</ele><time>2026-04-03T07:22:10Z</time></trkpt><trkpt lat="44.17602334893174" lon="3.686559464325927"><ele>878.0</ele><time>2026-04-03T07:22:11Z</time></trkpt><trkpt lat="44.17591369632815" lon="3.6866241616152644"><ele>878.0</ele><time>2026-04-03T07:22:12Z</time></trkpt><trkpt lat="44.17579861539798" lon="3.686714438010898"><ele>878.0</ele><time>2026-04-03T07:22:13Z</time></trkpt><trkpt lat="44.175698321059365" lon="3.686803231846455"><ele>878.0</ele><time>2026-04-03T07:22:14Z</time></trkpt><trkpt lat="44.17560253559011" lon="3.6869097472394237"><ele>877.75</ele><time>2026-04-03T07:22:15Z</time></trkpt><trkpt lat="44.1754999292181" lon="3.687001126470335"><ele>877.5</ele><time>2026-04-03T07:22:16Z</time></trkpt><trkpt lat="44.1753986876156" lon="3.6871069435906754"><ele>877.25</ele><time>2026-04-03T07:22:17Z</time></trkpt><trkpt lat="44.17530327681579" lon="3.6872359261261596"><ele>877.0</ele><time>2026-04-03T07:22:18Z</time></trkpt><trkpt lat="44.17518376681691" lon="3.6874082685588996"><ele>877.0</ele><time>2026-04-03T07:22:19Z</time></trkpt><trkpt lat="44.175070430234975" lon="3.6875490299166116"><ele>877.0</ele><time>2026-04-03T07:22:20Z</time></trkpt><trkpt lat="44.17497576738765" lon="3.6876641745314482"><ele>877.0</ele><time>2026-04-03T07:22:21Z</time></trkpt><trkpt lat="44.174898599057194" lon="3.687821275596977"><ele>877.0</ele><time>2026-04-03T07:22:22Z</time></trkpt><trkpt lat="44.17480315175284" lon="3.6879175478638038"><ele>876.5</ele><time>2026-04-03T07:22:23Z</time></trkpt><trkpt lat="44.174719744487305" lon="3.688036741518656"><ele>876.0</ele><time>2026-04-03T07:22:24Z</time></trkpt><trkpt lat="44.174623663268605" lon="3.6881623320431234"><ele>875.5</ele><time>2026-04-03T07:22:25Z</time></trkpt><trkpt lat="44.174525136624574" lon="3.688269956190671"><ele>875.0</ele><time>2026-04-03T07:22:26Z</time></trkpt><trkpt lat="44.1744123724066" lon="3.6883932185148436"><ele>875.0</ele><time>2026-04-03T07:22:27Z</time></trkpt><trkpt lat="44.17429575399891" lon="3.6885027433163544"><ele>875.0</ele><time>2026-04-03T07:22:28Z</time></trkpt><trkpt lat="44.17418191142869" lon="3.6886034717043743"><ele>875.0</ele><time>2026-04-03T07:22:29Z</time></trkpt><trkpt lat="44.17407220278709" lon="3.688708704420743"><ele>875.0</ele><time>2026-04-03T07:22:30Z</time></trkpt><trkpt lat="44.173971751884466" lon="3.6888056096674826"><ele>874.25</ele><time>2026-04-03T07:22:31Z</time></trkpt><trkpt lat="44.17386424072248" lon="3.6888945612093478"><ele>873.5</ele><time>2026-04-03T07:22:32Z</time></trkpt><trkpt lat="44.17374110044838" lon="3.6889690620414193"><ele>872.75</ele><time>2026-04-03T07:22:33Z</time></trkpt><trkpt lat="44.17361968682388" lon="3.6890481835131648"><ele>872.0</ele><time>2026-04-03T07:22:34Z</time></trkpt><trkpt lat="44.1735147528825" lon="3.689113025654958"><ele>872.0</ele><time>2026-04-03T07:22:35Z</time></trkpt><trkpt lat="44.173414038803784" lon="3.6891703074918483"><ele>872.0</ele><time>2026-04-03T07:22:36Z</time></trkpt><trkpt lat="44.17332255085024" lon="3.6892271974573254"><ele>872.0</ele><time>2026-04-03T07:22:37Z</time></trkpt><trkpt lat="44.17322929097213" lon="3.689328767218157"><ele>872.0</ele><time>2026-04-03T07:22:38Z</time></trkpt><trkpt lat="44.17311194278124" lon="3.6894426387485293"><ele>871.5</ele><time>2026-04-03T07:22:39Z</time></trkpt><trkpt lat="44.17302688629273" lon="3.689547221331273"><ele>871.0</ele><time>2026-04-03T07:22:40Z</time></trkpt><trkpt lat="44.172946184077304" lon="3.6896890281175274"><ele>870.5</ele><time>2026-04-03T07:22:41Z</time></trkpt><trkpt lat="44.17286715291582" lon="3.689851025186269"><ele>870.0</ele><time>2026-04-03T07:22:42Z</time></trkpt><trkpt lat="44.172793096581835" lon="3.690019997266159"><ele>870.0</ele><time>2026-04-03T07:22:43Z</time></trkpt><trkpt lat="44.17271527315096" lon="3.6901677777798323"><ele>870.0</ele><time>2026-04-03T07:22:44Z</time></trkpt><trkpt lat="44.172622685131685" lon="3.6903236560770485"><ele>870.0</ele><time>2026-04-03T07:22:45Z</time></trkpt><trkpt lat="44.172539397844474" lon="3.69043995049271"><ele>870.0</ele><time>2026-04-03T07:22:46Z</time></trkpt><trkpt lat="44.17242539436229" lon="3.6905358151392296"><ele>867.5</ele><time>2026-04-03T07:22:47Z</time></trkpt><trkpt lat="44.17231471282449" lon="3.690629201716461"><ele>865.0</ele><time>2026-04-03T07:22:48Z</time></trkpt><trkpt lat="44.17219709496659" lon="3.6907176685701475"><ele>862.5</ele><time>2026-04-03T07:22:49Z</time></trkpt><trkpt lat="44.172087778428995" lon="3.6907902464760225"><ele>860.0</ele><time>2026-04-03T07:22:50Z</time></trkpt><trkpt lat="44.171976666039306" lon="3.690848014949956"><ele>860.0</ele><time>2026-04-03T07:22:51Z</time></trkpt><trkpt lat="44.17186755468909" lon="3.6909047863699587"><ele>860.0</ele><time>2026-04-03T07:22:52Z</time></trkpt><trkpt lat="44.171755897399954" lon="3.6909519199749257"><ele>860.0</ele><time>2026-04-03T07:22:53Z</time></trkpt><trkpt lat="44.171652291788135" lon="3.6909969705580696"><ele>860.0</ele><time>2026-04-03T07:22:54Z</time></trkpt><trkpt lat="44.17153926119606" lon="3.69106971704588"><ele>858.6666666666667</ele><time>2026-04-03T07:22:55Z</time></trkpt><trkpt lat="44.17143416826547" lon="3.6911769821926264"><ele>857.3333333333333</ele><time>2026-04-03T07:22:56Z</time></trkpt><trkpt lat="44.17130367889726" lon="3.691326204451591"><ele>856.0</ele><time>2026-04-03T07:22:57Z</time></trkpt><trkpt lat="44.17118538758126" lon="3.691459359431793"><ele>856.0</ele><time>2026-04-03T07:22:58Z</time></trkpt><trkpt lat="44.17108976902113" lon="3.691582196079723"><ele>856.0</ele><time>2026-04-03T07:22:59Z</time></trkpt><trkpt lat="44.17099588433294" lon="3.6917106583594177"><ele>856.0</ele><time>2026-04-03T07:23:00Z</time></trkpt><trkpt lat="44.17092040853319" lon="3.6918159811095177"><ele>856.0</ele><time>2026-04-03T07:23:01Z</time></trkpt><trkpt lat="44.17084356927232" lon="3.69192451052581"><ele>855.6666666666666</ele><time>2026-04-03T07:23:02Z</time></trkpt><trkpt lat="44.17077195267181" lon="3.6920117457182946"><ele>855.3333333333333</ele><time>2026-04-03T07:23:03Z</time></trkpt><trkpt lat="44.17071496578223" lon="3.6920926554354763"><ele>855.0</ele><time>2026-04-03T07:23:04Z</time></trkpt><trkpt lat="44.17067349739886" lon="3.6921800592559673"><ele>854.6666666666667</ele><time>2026-04-03T07:23:05Z</time></trkpt><trkpt lat="44.17064235321237" lon="3.69229085180697"><ele>854.3333333333334</ele><time>2026-04-03T07:23:06Z</time></trkpt><trkpt lat="44.170627342086476" lon="3.692407912613604"><ele>854.0</ele><time>2026-04-03T07:23:07Z</time></trkpt><trkpt lat="44.17061463333582" lon="3.6925106440637583"><ele>855.2</ele><time>2026-04-03T07:23:08Z</time></trkpt><trkpt lat="44.1706051105128" lon="3.6926014349575063"><ele>856.4000000000001</ele><time>2026-04-03T07:23:09Z</time></trkpt><trkpt lat="44.170577390968894" lon="3.6927560671076463"><ele>857.6</ele><time>2026-04-03T07:23:11Z</time></trkpt><trkpt lat="44.17053654843022" lon="3.6928895224006046"><ele>858.8</ele><time>2026-04-03T07:23:13Z</time></trkpt><trkpt lat="44.17050064894057" lon="3.693033364946192"><ele>860.0</ele><time>2026-04-03T07:23:15Z</time></trkpt><trkpt lat="44.170439972289486" lon="3.693208506305504"><ele>860.0</ele><time>2026-04-03T07:23:17Z</time></trkpt><trkpt lat="44.17038748146612" lon="3.693315615757145"><ele>860.0</ele><time>2026-04-03T07:23:18Z</time></trkpt><trkpt lat="44.17032941958362" lon="3.6934217675714653"><ele>860.0</ele><time>2026-04-03T07:23:19Z</time></trkpt><trkpt lat="44.17027111144597" lon="3.6935411335747377"><ele>860.0</ele><time>2026-04-03T07:23:20Z</time></trkpt><trkpt lat="44.170223841635504" lon="3.693629347769704"><ele>860.0</ele><time>2026-04-03T07:23:21Z</time></trkpt><trkpt lat="44.17016498621362" lon="3.693722358985739"><ele>858.5000000000001</ele><time>2026-04-03T07:23:22Z</time></trkpt><trkpt lat="44.17010354285068" lon="3.6938326238525274"><ele>857.0</ele><time>2026-04-03T07:23:23Z</time></trkpt><trkpt lat="44.17006304169811" lon="3.693924320873269"><ele>855.5</ele><time>2026-04-03T07:23:24Z</time></trkpt><trkpt lat="44.17001938752361" lon="3.694005200067596"><ele>854.0</ele><time>2026-04-03T07:23:25Z</time></trkpt><trkpt lat="44.169965231221006" lon="3.694092617512166"><ele>852.5000000000001</ele><time>2026-04-03T07:23:26Z</time></trkpt><trkpt lat="44.169912943645365" lon="3.694174987933096"><ele>851.0</ele><time>2026-04-03T07:23:27Z</time></trkpt><trkpt lat="44.169865587681464" lon="3.694250065391676"><ele>848.5999999999999</ele><time>2026-04-03T07:23:28Z</time></trkpt><trkpt lat="44.169827896455715" lon="3.694330541793867"><ele>846.2</ele><time>2026-04-03T07:23:29Z</time></trkpt><trkpt lat="44.169806155253376" lon="3.6944504695463523"><ele>843.8</ele><time>2026-04-03T07:23:30Z</time></trkpt><trkpt lat="44.16978800958851" lon="3.6946136860774015"><ele>841.4000000000001</ele><time>2026-04-03T07:23:31Z</time></trkpt><trkpt lat="44.169757953469485" lon="3.6948086446328063"><ele>839.0</ele><time>2026-04-03T07:23:32Z</time></trkpt><trkpt lat="44.16972714567874" lon="3.694990806305194"><ele>839.0</ele><time>2026-04-03T07:23:33Z</time></trkpt><trkpt lat="44.169683101036284" lon="3.69514400315298"><ele>839.0</ele><time>2026-04-03T07:23:34Z</time></trkpt><trkpt lat="44.16964437083219" lon="3.695283001083184"><ele>839.0</ele><time>2026-04-03T07:23:35Z</time></trkpt><trkpt lat="44.1696095968538" lon="3.6954173325463318"><ele>839.0</ele><time>2026-04-03T07:23:36Z</time></trkpt><trkpt lat="44.16956365295807" lon="3.6955451125608416"><ele>839.0</ele><time>2026-04-03T07:23:37Z</time></trkpt><trkpt lat="44.1695121025609" lon="3.6956804233390983"><ele>840.6</ele><time>2026-04-03T07:23:38Z</time></trkpt><trkpt lat="44.169463252597254" lon="3.6958164774014506"><ele>842.2</ele><time>2026-04-03T07:23:39Z</time></trkpt><trkpt lat="44.16942205998384" lon="3.6959453871233268"><ele>843.8000000000001</ele><time>2026-04-03T07:23:40Z</time></trkpt><trkpt lat="44.16936923103283" lon="3.6961038249068716"><ele>845.4000000000001</ele><time>2026-04-03T07:23:41Z</time></trkpt><trkpt lat="44.169331995457604" lon="3.696207562525401"><ele>847.0</ele><time>2026-04-03T07:23:42Z</time></trkpt><trkpt lat="44.169293694686175" lon="3.696336114979699"><ele>850.2</ele><time>2026-04-03T07:23:43Z</time></trkpt><trkpt lat="44.16926643044048" lon="3.696443244755536"><ele>853.4000000000001</ele><time>2026-04-03T07:23:44Z</time></trkpt><trkpt lat="44.16924087070017" lon="3.696588820627888"><ele>856.5999999999999</ele><time>2026-04-03T07:23:45Z</time></trkpt><trkpt lat="44.16922725838024" lon="3.69671627749946"><ele>859.8</ele><time>2026-04-03T07:23:46Z</time></trkpt><trkpt lat="44.16923782556111" lon="3.6968629647161095"><ele>863.0</ele><time>2026-04-03T07:23:47Z</time></trkpt><trkpt lat="44.169260827816125" lon="3.6970274795982445"><ele>865.25</ele><time>2026-04-03T07:23:48Z</time></trkpt><trkpt lat="44.16926961484951" lon="3.697186856090275"><ele>867.5</ele><time>2026-04-03T07:23:49Z</time></trkpt><trkpt lat="44.16926751986758" lon="3.697355374670956"><ele>869.75</ele><time>2026-04-03T07:23:50Z</time></trkpt><trkpt lat="44.16928052182158" lon="3.697520914827776"><ele>872.0</ele><time>2026-04-03T07:23:51Z</time></trkpt><trkpt lat="44.169291505927184" lon="3.697666977609763"><ele>873.0</ele><time>2026-04-03T07:23:52Z</time></trkpt><trkpt lat="44.16933643562612" lon="3.6978258023700876"><ele>874.0</ele><time>2026-04-03T07:23:53Z</time></trkpt><trkpt lat="44.169406275884874" lon="3.6979862237968506"><ele>875.0</ele><time>2026-04-03T07:23:54Z</time></trkpt><trkpt lat="44.16946051281042" lon="3.6981178049269703"><ele>876.0</ele><time>2026-04-03T07:23:55Z</time></trkpt><trkpt lat="44.169499625341984" lon="3.6982535921932174"><ele>876.0</ele><time>2026-04-03T07:23:56Z</time></trkpt><trkpt lat="44.16952822113967" lon="3.6983846150783726"><ele>875.9999999999999</ele><time>2026-04-03T07:23:57Z</time></trkpt><trkpt lat="44.169539455085534" lon="3.6984832148095346"><ele>875.9999999999999</ele><time>2026-04-03T07:23:58Z</time></trkpt><trkpt lat="44.169538292951884" lon="3.6986190558183574"><ele>876.0</ele><time>2026-04-03T07:23:59Z</time></trkpt><trkpt lat="44.16951035478862" lon="3.6987472669781005"><ele>876.0</ele><time>2026-04-03T07:24:00Z</time></trkpt><trkpt lat="44.16943896929197" lon="3.6988789650886176"><ele>875.25</ele><time>2026-04-03T07:24:01Z</time></trkpt><trkpt lat="44.169358780851766" lon="3.6990619513269447"><ele>874.5</ele><time>2026-04-03T07:24:02Z</time></trkpt><trkpt lat="44.16927846223334" lon="3.699231632647779"><ele>873.75</ele><time>2026-04-03T07:24:03Z</time></trkpt><trkpt lat="44.16922318445772" lon="3.699394304171088"><ele>873.0</ele><time>2026-04-03T07:24:04Z</time></trkpt><trkpt lat="44.16916832143329" lon="3.699543755466802"><ele>870.5</ele><time>2026-04-03T07:24:05Z</time></trkpt><trkpt lat="44.16910141513623" lon="3.6996492341440717"><ele>868.0</ele><time>2026-04-03T07:24:06Z</time></trkpt><trkpt lat="44.16901044817203" lon="3.6997522529951516"><ele>865.5</ele><time>2026-04-03T07:24:07Z</time></trkpt><trkpt lat="44.16891186554322" lon="3.699856419601689"><ele>863.0</ele><time>2026-04-03T07:24:08Z</time></trkpt><trkpt lat="44.168818752383956" lon="3.6999767189416897"><ele>864.0</ele><time>2026-04-03T07:24:09Z</time></trkpt><trkpt lat="44.16872928442288" lon="3.700094587129562"><ele>865.0</ele><time>2026-04-03T07:24:10Z</time></trkpt><trkpt lat="44.16864907344274" lon="3.700187962049757"><ele>866.0</ele><time>2026-04-03T07:24:11Z</time></trkpt><trkpt lat="44.168572757432464" lon="3.700265813476239"><ele>867.0</ele><time>2026-04-03T07:24:12Z</time></trkpt><trkpt lat="44.16848727033647" lon="3.700350035768074"><ele>868.0</ele><time>2026-04-03T07:24:13Z</time></trkpt><trkpt lat="44.16840112190699" lon="3.700423497486284"><ele>868.0</ele><time>2026-04-03T07:24:14Z</time></trkpt><trkpt lat="44.16832506887566" lon="3.70048189008866"><ele>868.0</ele><time>2026-04-03T07:24:15Z</time></trkpt><trkpt lat="44.16825763319506" lon="3.700542804941313"><ele>868.0</ele><time>2026-04-03T07:24:16Z</time></trkpt><trkpt lat="44.16819243317722" lon="3.700608108310339"><ele>868.0</ele><time>2026-04-03T07:24:17Z</time></trkpt><trkpt lat="44.16813278888637" lon="3.7006544869471423"><ele>868.0</ele><time>2026-04-03T07:24:18Z</time></trkpt><trkpt lat="44.16806870577853" lon="3.7006862064646207"><ele>868.0</ele><time>2026-04-03T07:24:19Z</time></trkpt><trkpt lat="44.16800454637422" lon="3.700701826631739"><ele>868.0</ele><time>2026-04-03T07:24:20Z</time></trkpt><trkpt lat="44.16793115453753" lon="3.7007188046499118"><ele>869.9999999999999</ele><time>2026-04-03T07:24:21Z</time></trkpt><trkpt lat="44.167865560648266" lon="3.7007202050500343"><ele>872.0</ele><time>2026-04-03T07:24:22Z</time></trkpt><trkpt lat="44.1677453763281" lon="3.7007545921323164"><ele>874.0</ele><time>2026-04-03T07:24:24Z</time></trkpt><trkpt lat="44.16768321234123" lon="3.700794641024172"><ele>876.0</ele><time>2026-04-03T07:24:25Z</time></trkpt><trkpt lat="44.16762142644742" lon="3.7008586982019063"><ele>877.9999999999999</ele><time>2026-04-03T07:24:26Z</time></trkpt><trkpt lat="44.16756153767021" lon="3.7009304803306806"><ele>880.0</ele><time>2026-04-03T07:24:27Z</time></trkpt><trkpt lat="44.16750017095669" lon="3.701002755700928"><ele>879.9999999999999</ele><time>2026-04-03T07:24:28Z</time></trkpt><trkpt lat="44.167436603365935" lon="3.7010804833260362"><ele>880.0</ele><time>2026-04-03T07:24:29Z</time></trkpt><trkpt lat="44.16736890905902" lon="3.7011621049374415"><ele>880.0</ele><time>2026-04-03T07:24:30Z</time></trkpt><trkpt lat="44.16732166069316" lon="3.701229760359113"><ele>880.0</ele><time>2026-04-03T07:24:31Z</time></trkpt><trkpt lat="44.16728697118606" lon="3.7013199938273016"><ele>879.9999999999999</ele><time>2026-04-03T07:24:32Z</time></trkpt><trkpt lat="44.16726939409174" lon="3.701432022096151"><ele>880.0</ele><time>2026-04-03T07:24:34Z</time></trkpt><trkpt lat="44.16725949724792" lon="3.7015263545820973"><ele>878.2857142857142</ele><time>2026-04-03T07:25:00Z</time></trkpt><trkpt lat="44.16727935341219" lon="3.7014259709618704"><ele>876.5714285714286</ele><time>2026-04-03T07:38:47Z</time></trkpt><trkpt lat="44.1672204088173" lon="3.701489241408277"><ele>874.8571428571429</ele><time>2026-04-03T07:40:00Z</time></trkpt><trkpt lat="44.167280919020676" lon="3.7015250674528235"><ele>873.1428571428571</ele><time>2026-04-03T07:40:21Z</time></trkpt><trkpt lat="44.167238476869514" lon="3.701440368000341"><ele>871.4285714285714</ele><time>2026-04-03T07:41:10Z</time></trkpt><trkpt lat="44.16725086242055" lon="3.70153446391207"><ele>869.7142857142857</ele><time>2026-04-03T07:44:05Z</time></trkpt><trkpt lat="44.1673215647608" lon="3.7015205938756175"><ele>868.0</ele><time>2026-04-03T08:00:50Z</time></trkpt><trkpt lat="44.167258946214304" lon="3.7015110358459116"><ele>867.9999999999999</ele><time>2026-04-03T08:08:58Z</time></trkpt><trkpt lat="44.16725709306157" lon="3.701607837702672"><ele>868.0</ele><time>2026-04-03T08:12:16Z</time></trkpt><trkpt lat="44.167216164638724" lon="3.7017363987607075"><ele>868.0</ele><time>2026-04-03T08:12:17Z</time></trkpt><trkpt lat="44.1671758934356" lon="3.7018464244848492"><ele>868.0</ele><time>2026-04-03T08:12:18Z</time></trkpt><trkpt lat="44.167136778699145" lon="3.701938268021211"><ele>867.9999999999999</ele><time>2026-04-03T08:12:19Z</time></trkpt><trkpt lat="44.16708877860572" lon="3.7020374796615507"><ele>868.0</ele><time>2026-04-03T08:12:20Z</time></trkpt><trkpt lat="44.16703648185789" lon="3.7021373770962462"><ele>867.8333333333333</ele><time>2026-04-03T08:12:21Z</time></trkpt><trkpt lat="44.16698903848709" lon="3.702214521114806"><ele>867.6666666666666</ele><time>2026-04-03T08:12:22Z</time></trkpt><trkpt lat="44.16693633635971" lon="3.702304851302129"><ele>867.5</ele><time>2026-04-03T08:12:23Z</time></trkpt><trkpt lat="44.166894744132236" lon="3.7023770782680314"><ele>867.3333333333333</ele><time>2026-04-03T08:12:24Z</time></trkpt><trkpt lat="44.16684602687105" lon="3.7024537648680527"><ele>867.1666666666666</ele><time>2026-04-03T08:12:25Z</time></trkpt><trkpt lat="44.16677316946279" lon="3.702560079087364"><ele>867.0</ele><time>2026-04-03T08:12:27Z</time></trkpt><trkpt lat="44.1667752344912" lon="3.702656748793763"><ele>867.0</ele><time>2026-04-03T08:12:29Z</time></trkpt><trkpt lat="44.166852547817484" lon="3.7027071423318207"><ele>867.0</ele><time>2026-04-03T08:12:31Z</time></trkpt><trkpt lat="44.16694449887523" lon="3.7026236951280675"><ele>867.0</ele><time>2026-04-03T08:12:33Z</time></trkpt><trkpt lat="44.16698764343119" lon="3.702542474836793"><ele>867.0</ele><time>2026-04-03T08:12:34Z</time></trkpt><trkpt lat="44.167046280790515" lon="3.7024979433717133"><ele>867.0</ele><time>2026-04-03T08:12:35Z</time></trkpt><trkpt lat="44.167120323509884" lon="3.702459036713503"><ele>867.0</ele><time>2026-04-03T08:12:36Z</time></trkpt><trkpt lat="44.167212716534564" lon="3.7023873030246888"><ele>867.0</ele><time>2026-04-03T08:12:37Z</time></trkpt><trkpt lat="44.16730762695456" lon="3.7023142981052772"><ele>867.0</ele><time>2026-04-03T08:12:38Z</time></trkpt><trkpt lat="44.16737947786603" lon="3.702257933634018"><ele>867.0</ele><time>2026-04-03T08:12:39Z</time></trkpt><trkpt lat="44.16748237432416" lon="3.702145947238811"><ele>867.0</ele><time>2026-04-03T08:12:41Z</time></trkpt><trkpt lat="44.16756347105827" lon="3.7020560331044696"><ele>867.0</ele><time>2026-04-03T08:12:42Z</time></trkpt><trkpt lat="44.16764828202876" lon="3.701971614285127"><ele>867.2</ele><time>2026-04-03T08:12:43Z</time></trkpt><trkpt lat="44.16773135830663" lon="3.701907405761072"><ele>867.4000000000001</ele><time>2026-04-03T08:12:44Z</time></trkpt><trkpt lat="44.167834490967834" lon="3.7018431070216997"><ele>867.5999999999999</ele><time>2026-04-03T08:12:45Z</time></trkpt><trkpt lat="44.16793456072279" lon="3.7017600763812606"><ele>867.8</ele><time>2026-04-03T08:12:46Z</time></trkpt><trkpt lat="44.16800527758567" lon="3.701684527626729"><ele>868.0</ele><time>2026-04-03T08:12:47Z</time></trkpt><trkpt lat="44.16809414262345" lon="3.70158624766939"><ele>868.0</ele><time>2026-04-03T08:12:48Z</time></trkpt><trkpt lat="44.16817673058831" lon="3.701481642547488"><ele>868.0</ele><time>2026-04-03T08:12:49Z</time></trkpt><trkpt lat="44.16825881976556" lon="3.7013825733368253"><ele>868.0</ele><time>2026-04-03T08:12:50Z</time></trkpt><trkpt lat="44.16833853384898" lon="3.7013045240077456"><ele>868.0</ele><time>2026-04-03T08:12:51Z</time></trkpt><trkpt lat="44.16840088231158" lon="3.70123954249202"><ele>868.0</ele><time>2026-04-03T08:12:52Z</time></trkpt><trkpt lat="44.16845118790416" lon="3.7011726189519356"><ele>867.9999999999999</ele><time>2026-04-03T08:12:53Z</time></trkpt><trkpt lat="44.16850679070933" lon="3.701105087812092"><ele>868.0</ele><time>2026-04-03T08:12:54Z</time></trkpt><trkpt lat="44.16857515119484" lon="3.7010680748218143"><ele>868.0</ele><time>2026-04-03T08:12:55Z</time></trkpt><trkpt lat="44.16865229355759" lon="3.7010261674566114"><ele>868.0</ele><time>2026-04-03T08:12:56Z</time></trkpt><trkpt lat="44.1687357111489" lon="3.7009619643931133"><ele>867.9999999999999</ele><time>2026-04-03T08:12:57Z</time></trkpt><trkpt lat="44.16880990183603" lon="3.7008945075058923"><ele>868.0</ele><time>2026-04-03T08:12:58Z</time></trkpt><trkpt lat="44.16886412176241" lon="3.7008355521735212"><ele>868.0</ele><time>2026-04-03T08:12:59Z</time></trkpt><trkpt lat="44.16892541550972" lon="3.7007697706456795"><ele>868.0</ele><time>2026-04-03T08:13:00Z</time></trkpt><trkpt lat="44.16903456735328" lon="3.700716380659324"><ele>868.0</ele><time>2026-04-03T08:13:01Z</time></trkpt><trkpt lat="44.16911969903076" lon="3.7006692784992397"><ele>868.0</ele><time>2026-04-03T08:13:02Z</time></trkpt><trkpt lat="44.16920962921889" lon="3.700603240168927"><ele>868.0</ele><time>2026-04-03T08:13:03Z</time></trkpt><trkpt lat="44.16931800915988" lon="3.7005173626767958"><ele>867.0</ele><time>2026-04-03T08:13:04Z</time></trkpt><trkpt lat="44.16939301289877" lon="3.7004676166898762"><ele>866.0</ele><time>2026-04-03T08:13:05Z</time></trkpt><trkpt lat="44.169482145160494" lon="3.700384988183774"><ele>865.0</ele><time>2026-04-03T08:13:06Z</time></trkpt><trkpt lat="44.169577402210166" lon="3.700279454775681"><ele>864.0</ele><time>2026-04-03T08:13:07Z</time></trkpt><trkpt lat="44.16966652475958" lon="3.700164356254787"><ele>863.0</ele><time>2026-04-03T08:13:08Z</time></trkpt><trkpt lat="44.16975351161494" lon="3.7000240505374657"><ele>863.0</ele><time>2026-04-03T08:13:09Z</time></trkpt><trkpt lat="44.16983072099258" lon="3.699871798902806"><ele>863.0</ele><time>2026-04-03T08:13:10Z</time></trkpt><trkpt lat="44.169900161344366" lon="3.6997270013679437"><ele>863.0</ele><time>2026-04-03T08:13:11Z</time></trkpt><trkpt lat="44.17010692309489" lon="3.699662199652373"><ele>860.0</ele><time>2026-04-03T08:13:12Z</time></trkpt><trkpt lat="44.1701542920521" lon="3.699517283782781"><ele>857.0</ele><time>2026-04-03T08:13:13Z</time></trkpt><trkpt lat="44.17020156650358" lon="3.699368482321223"><ele>854.0</ele><time>2026-04-03T08:13:14Z</time></trkpt><trkpt lat="44.170239312653145" lon="3.6992434019510547"><ele>851.0</ele><time>2026-04-03T08:13:15Z</time></trkpt><trkpt lat="44.170270087132" lon="3.699137888640791"><ele>848.0</ele><time>2026-04-03T08:13:16Z</time></trkpt><trkpt lat="44.17030059056345" lon="3.699024567477592"><ele>848.0000000000001</ele><time>2026-04-03T08:13:17Z</time></trkpt><trkpt lat="44.17032836707088" lon="3.6989100357229177"><ele>848.0</ele><time>2026-04-03T08:13:18Z</time></trkpt><trkpt lat="44.170344209916045" lon="3.698823848959668"><ele>848.0</ele><time>2026-04-03T08:13:19Z</time></trkpt><trkpt lat="44.17035921630561" lon="3.6987228597575297"><ele>848.0</ele><time>2026-04-03T08:13:20Z</time></trkpt><trkpt lat="44.170372560322306" lon="3.6986047271191387"><ele>848.0000000000001</ele><time>2026-04-03T08:13:22Z</time></trkpt><trkpt lat="44.17031669480063" lon="3.69876708866945"><ele>848.0</ele><time>2026-04-03T08:13:42Z</time></trkpt><trkpt lat="44.1702880899383" lon="3.698898441899441"><ele>848.0</ele><time>2026-04-03T08:13:43Z</time></trkpt><trkpt lat="44.17025764333665" lon="3.6990347172552247"><ele>848.0</ele><time>2026-04-03T08:13:44Z</time></trkpt><trkpt lat="44.17021868283655" lon="3.6991798153194893"><ele>848.0</ele><time>2026-04-03T08:13:45Z</time></trkpt><trkpt lat="44.17017712615366" lon="3.6993245133141817"><ele>848.0</ele><time>2026-04-03T08:13:46Z</time></trkpt><trkpt lat="44.170134933733955" lon="3.6994605198781723"><ele>848.0</ele><time>2026-04-03T08:13:47Z</time></trkpt><trkpt lat="44.17009483145273" lon="3.699584349574691"><ele>846.5000000000001</ele><time>2026-04-03T08:13:48Z</time></trkpt><trkpt lat="44.17005877145409" lon="3.6997002226910953"><ele>845.0</ele><time>2026-04-03T08:13:49Z</time></trkpt><trkpt lat="44.170025428580374" lon="3.699809489494857"><ele>843.5</ele><time>2026-04-03T08:13:50Z</time></trkpt><trkpt lat="44.169992350580316" lon="3.6999107017519774"><ele>842.0</ele><time>2026-04-03T08:13:51Z</time></trkpt><trkpt lat="44.169962950285786" lon="3.7000083339201493"><ele>840.5000000000001</ele><time>2026-04-03T08:13:52Z</time></trkpt><trkpt lat="44.16993653171068" lon="3.700100896299763"><ele>839.0</ele><time>2026-04-03T08:13:53Z</time></trkpt><trkpt lat="44.16990627316159" lon="3.700186640464177"><ele>840.1666666666667</ele><time>2026-04-03T08:13:54Z</time></trkpt><trkpt lat="44.169841410662755" lon="3.700319960348504"><ele>841.3333333333334</ele><time>2026-04-03T08:13:55Z</time></trkpt><trkpt lat="44.16980205687919" lon="3.7004184073091024"><ele>842.5</ele><time>2026-04-03T08:13:56Z</time></trkpt><trkpt lat="44.1697611063001" lon="3.700510058738993"><ele>843.6666666666667</ele><time>2026-04-03T08:13:57Z</time></trkpt><trkpt lat="44.169720736084784" lon="3.7005792038372807"><ele>844.8333333333334</ele><time>2026-04-03T08:13:58Z</time></trkpt><trkpt lat="44.169685776235156" lon="3.700675517459709"><ele>846.0</ele><time>2026-04-03T08:14:00Z</time></trkpt><trkpt lat="44.169753784843735" lon="3.7006737112129375"><ele>846.0</ele><time>2026-04-03T08:14:04Z</time></trkpt><trkpt lat="44.16978159638114" lon="3.700592976769109"><ele>846.0</ele><time>2026-04-03T08:14:30Z</time></trkpt><trkpt lat="44.16981817047808" lon="3.700489539317091"><ele>846.0</ele><time>2026-04-03T08:14:31Z</time></trkpt><trkpt lat="44.16988420274496" lon="3.7002737669172383"><ele>846.0</ele><time>2026-04-03T08:14:33Z</time></trkpt><trkpt lat="44.169946296384865" lon="3.700118473664013"><ele>846.0</ele><time>2026-04-03T08:14:34Z</time></trkpt><trkpt lat="44.1700013960544" lon="3.6999496083580157"><ele>846.5</ele><time>2026-04-03T08:14:35Z</time></trkpt><trkpt lat="44.17005269527259" lon="3.6997927609044754"><ele>847.0</ele><time>2026-04-03T08:14:36Z</time></trkpt><trkpt lat="44.170104165255374" lon="3.6996335425288707"><ele>847.5</ele><time>2026-04-03T08:14:37Z</time></trkpt><trkpt lat="44.17015584927035" lon="3.699470910751382"><ele>848.0</ele><time>2026-04-03T08:14:38Z</time></trkpt><trkpt lat="44.17021204363013" lon="3.699297085842112"><ele>848.0</ele><time>2026-04-03T08:14:39Z</time></trkpt><trkpt lat="44.170265278084784" lon="3.6991173428877406"><ele>848.0</ele><time>2026-04-03T08:14:40Z</time></trkpt><trkpt lat="44.17032435379897" lon="3.6989393620902202"><ele>848.0</ele><time>2026-04-03T08:14:41Z</time></trkpt><trkpt lat="44.17036515493655" lon="3.6987281124530362"><ele>848.0</ele><time>2026-04-03T08:14:42Z</time></trkpt><trkpt lat="44.1703914112838" lon="3.6985082322573333"><ele>849.6666666666667</ele><time>2026-04-03T08:14:43Z</time></trkpt><trkpt lat="44.17040377013779" lon="3.698284299786593"><ele>851.3333333333333</ele><time>2026-04-03T08:14:44Z</time></trkpt><trkpt lat="44.17040536354093" lon="3.698055512054814"><ele>853.0</ele><time>2026-04-03T08:14:45Z</time></trkpt><trkpt lat="44.17040950145866" lon="3.697821525397562"><ele>853.0</ele><time>2026-04-03T08:14:46Z</time></trkpt><trkpt lat="44.170412229360814" lon="3.69758937384379"><ele>853.0</ele><time>2026-04-03T08:14:47Z</time></trkpt><trkpt lat="44.17041346000394" lon="3.6973542433964455"><ele>853.0</ele><time>2026-04-03T08:14:48Z</time></trkpt><trkpt lat="44.170412858795366" lon="3.697114561041874"><ele>852.3333333333333</ele><time>2026-04-03T08:14:49Z</time></trkpt><trkpt lat="44.17041265223406" lon="3.6968690281971424"><ele>851.6666666666667</ele><time>2026-04-03T08:14:50Z</time></trkpt><trkpt lat="44.170416513778726" lon="3.6966273548470574"><ele>851.0</ele><time>2026-04-03T08:14:51Z</time></trkpt><trkpt lat="44.17041717297071" lon="3.696394319167724"><ele>851.0</ele><time>2026-04-03T08:14:52Z</time></trkpt><trkpt lat="44.17041420750992" lon="3.6961893229204743"><ele>851.0</ele><time>2026-04-03T08:14:53Z</time></trkpt><trkpt lat="44.170416701730936" lon="3.695993921380574"><ele>851.0</ele><time>2026-04-03T08:14:54Z</time></trkpt><trkpt lat="44.170414031833744" lon="3.695784502551213"><ele>851.0</ele><time>2026-04-03T08:14:55Z</time></trkpt><trkpt lat="44.17041554891839" lon="3.6955558978845815"><ele>850.5</ele><time>2026-04-03T08:14:56Z</time></trkpt><trkpt lat="44.170413820143004" lon="3.6953556533194356"><ele>850.0</ele><time>2026-04-03T08:14:57Z</time></trkpt><trkpt lat="44.17041022196079" lon="3.6951738900313367"><ele>849.5</ele><time>2026-04-03T08:14:58Z</time></trkpt><trkpt lat="44.17040617711231" lon="3.695009336559004"><ele>849.0</ele><time>2026-04-03T08:14:59Z</time></trkpt><trkpt lat="44.17040800314451" lon="3.6948778301072736"><ele>849.0</ele><time>2026-04-03T08:15:00Z</time></trkpt><trkpt lat="44.17042227583019" lon="3.6947809774896734"><ele>849.0</ele><time>2026-04-03T08:15:01Z</time></trkpt><trkpt lat="44.17049018539216" lon="3.6949007598596992"><ele>849.0</ele><time>2026-04-03T08:15:05Z</time></trkpt><trkpt lat="44.17049142477377" lon="3.694989059977391"><ele>849.0</ele><time>2026-04-03T08:15:06Z</time></trkpt><trkpt lat="44.170503487145446" lon="3.6951301571914366"><ele>849.0</ele><time>2026-04-03T08:15:07Z</time></trkpt><trkpt lat="44.17055044575018" lon="3.6953084270504566"><ele>849.0</ele><time>2026-04-03T08:15:08Z</time></trkpt><trkpt lat="44.170592589046514" lon="3.695488414199987"><ele>849.0</ele><time>2026-04-03T08:15:09Z</time></trkpt><trkpt lat="44.17062019071667" lon="3.695675697822328"><ele>849.0</ele><time>2026-04-03T08:15:10Z</time></trkpt><trkpt lat="44.17063255199157" lon="3.6958624373472975"><ele>849.0</ele><time>2026-04-03T08:15:11Z</time></trkpt><trkpt lat="44.17064988129506" lon="3.6960273121512985"><ele>849.5</ele><time>2026-04-03T08:15:12Z</time></trkpt><trkpt lat="44.17068520804914" lon="3.6961955967815103"><ele>850.0</ele><time>2026-04-03T08:15:13Z</time></trkpt><trkpt lat="44.17073970316949" lon="3.696360612044129"><ele>850.5</ele><time>2026-04-03T08:15:14Z</time></trkpt><trkpt lat="44.17079569429585" lon="3.6965344755434355"><ele>851.0</ele><time>2026-04-03T08:15:15Z</time></trkpt><trkpt lat="44.170839781957774" lon="3.6967103592283816"><ele>845.25</ele><time>2026-04-03T08:15:16Z</time></trkpt><trkpt lat="44.170869515869" lon="3.6968781526825043"><ele>839.5</ele><time>2026-04-03T08:15:17Z</time></trkpt><trkpt lat="44.17089406154588" lon="3.6970256946544757"><ele>833.75</ele><time>2026-04-03T08:15:18Z</time></trkpt><trkpt lat="44.17089562962073" lon="3.697179328309199"><ele>828.0</ele><time>2026-04-03T08:15:19Z</time></trkpt><trkpt lat="44.17087188194924" lon="3.697350186856696"><ele>826.75</ele><time>2026-04-03T08:15:20Z</time></trkpt><trkpt lat="44.170859517667076" lon="3.697548957248044"><ele>825.5</ele><time>2026-04-03T08:15:21Z</time></trkpt><trkpt lat="44.170868314755104" lon="3.6977481080914316"><ele>824.25</ele><time>2026-04-03T08:15:22Z</time></trkpt><trkpt lat="44.1709027479094" lon="3.6979282604154142"><ele>823.0</ele><time>2026-04-03T08:15:23Z</time></trkpt><trkpt lat="44.1709419488297" lon="3.698089588986926"><ele>822.75</ele><time>2026-04-03T08:15:24Z</time></trkpt><trkpt lat="44.170973696488744" lon="3.698240125893305"><ele>822.5</ele><time>2026-04-03T08:15:25Z</time></trkpt><trkpt lat="44.170988224033" lon="3.698381555507059"><ele>822.25</ele><time>2026-04-03T08:15:26Z</time></trkpt><trkpt lat="44.1709846767178" lon="3.6985416758155347"><ele>822.0</ele><time>2026-04-03T08:15:27Z</time></trkpt><trkpt lat="44.17097620265409" lon="3.6987238619571627"><ele>821.5</ele><time>2026-04-03T08:15:28Z</time></trkpt><trkpt lat="44.17096325506719" lon="3.698920744228236"><ele>821.0</ele><time>2026-04-03T08:15:29Z</time></trkpt><trkpt lat="44.17095925949688" lon="3.6991062405544244"><ele>820.5</ele><time>2026-04-03T08:15:30Z</time></trkpt><trkpt lat="44.17096953314699" lon="3.6992913552490063"><ele>820.0</ele><time>2026-04-03T08:15:31Z</time></trkpt><trkpt lat="44.170952990123155" lon="3.6994891680614415"><ele>818.25</ele><time>2026-04-03T08:15:32Z</time></trkpt><trkpt lat="44.170934531040174" lon="3.6996858631265326"><ele>816.5</ele><time>2026-04-03T08:15:33Z</time></trkpt><trkpt lat="44.17091877613724" lon="3.6998722209114296"><ele>814.75</ele><time>2026-04-03T08:15:34Z</time></trkpt><trkpt lat="44.170914711277284" lon="3.7000513332107725"><ele>813.0</ele><time>2026-04-03T08:15:35Z</time></trkpt><trkpt lat="44.17092417089247" lon="3.7002305738875054"><ele>809.75</ele><time>2026-04-03T08:15:36Z</time></trkpt><trkpt lat="44.17093202757676" lon="3.700394235393818"><ele>806.5</ele><time>2026-04-03T08:15:37Z</time></trkpt><trkpt lat="44.1709037563695" lon="3.7005477416326227"><ele>803.25</ele><time>2026-04-03T08:15:38Z</time></trkpt><trkpt lat="44.170874587750966" lon="3.700714094408373"><ele>800.0</ele><time>2026-04-03T08:15:39Z</time></trkpt><trkpt lat="44.170825918767584" lon="3.7008871488914745"><ele>800.0</ele><time>2026-04-03T08:15:40Z</time></trkpt><trkpt lat="44.17076172452246" lon="3.7010586223889557"><ele>800.0</ele><time>2026-04-03T08:15:41Z</time></trkpt><trkpt lat="44.17067974223391" lon="3.70123607510844"><ele>800.0</ele><time>2026-04-03T08:15:42Z</time></trkpt><trkpt lat="44.17060856806853" lon="3.701425097369183"><ele>800.0</ele><time>2026-04-03T08:15:43Z</time></trkpt><trkpt lat="44.1705341954654" lon="3.7016065560827447"><ele>800.5</ele><time>2026-04-03T08:15:44Z</time></trkpt><trkpt lat="44.170488989852764" lon="3.7018098131845556"><ele>801.0</ele><time>2026-04-03T08:15:45Z</time></trkpt><trkpt lat="44.170449674073666" lon="3.7020049639834998"><ele>801.5</ele><time>2026-04-03T08:15:46Z</time></trkpt><trkpt lat="44.17041350350457" lon="3.7021974561936917"><ele>802.0</ele><time>2026-04-03T08:15:47Z</time></trkpt><trkpt lat="44.170406253061" lon="3.702385591130863"><ele>798.25</ele><time>2026-04-03T08:15:48Z</time></trkpt><trkpt lat="44.17042504495657" lon="3.702569776621773"><ele>794.5</ele><time>2026-04-03T08:15:49Z</time></trkpt><trkpt lat="44.170448715820484" lon="3.702743130369346"><ele>790.75</ele><time>2026-04-03T08:15:50Z</time></trkpt><trkpt lat="44.170462400419275" lon="3.7029039343822916"><ele>787.0</ele><time>2026-04-03T08:15:51Z</time></trkpt><trkpt lat="44.17046517621689" lon="3.7030625013399"><ele>784.0</ele><time>2026-04-03T08:15:52Z</time></trkpt><trkpt lat="44.170455028794" lon="3.703207413772446"><ele>781.0</ele><time>2026-04-03T08:15:53Z</time></trkpt><trkpt lat="44.17045045698075" lon="3.703304987586814"><ele>778.0</ele><time>2026-04-03T08:15:54Z</time></trkpt><trkpt lat="44.170486516231385" lon="3.7034513475150295"><ele>775.0</ele><time>2026-04-03T08:15:56Z</time></trkpt><trkpt lat="44.17055225331604" lon="3.703429968320647"><ele>772.0</ele><time>2026-04-03T08:15:57Z</time></trkpt><trkpt lat="44.17064988483987" lon="3.703408649040568"><ele>769.6666666666666</ele><time>2026-04-03T08:15:59Z</time></trkpt><trkpt lat="44.170712050952446" lon="3.7033895473337397"><ele>767.3333333333333</ele><time>2026-04-03T08:16:00Z</time></trkpt><trkpt lat="44.17077652067441" lon="3.7033591613823194"><ele>765.0</ele><time>2026-04-03T08:16:01Z</time></trkpt><trkpt lat="44.17089082777989" lon="3.7032915927628416"><ele>762.6666666666666</ele><time>2026-04-03T08:16:03Z</time></trkpt><trkpt lat="44.17095095094731" lon="3.703248010506184"><ele>760.3333333333333</ele><time>2026-04-03T08:16:04Z</time></trkpt><trkpt lat="44.17101851855284" lon="3.703192559461593"><ele>758.0</ele><time>2026-04-03T08:16:05Z</time></trkpt><trkpt lat="44.171084690554494" lon="3.703127659290442"><ele>758.0</ele><time>2026-04-03T08:16:06Z</time></trkpt><trkpt lat="44.17115635339847" lon="3.703068964842757"><ele>758.0</ele><time>2026-04-03T08:16:07Z</time></trkpt><trkpt lat="44.17123890628288" lon="3.7029979479636745"><ele>758.0</ele><time>2026-04-03T08:16:08Z</time></trkpt><trkpt lat="44.17131536569883" lon="3.702925774949929"><ele>758.0</ele><time>2026-04-03T08:16:09Z</time></trkpt><trkpt lat="44.1714018688995" lon="3.7028546390985957"><ele>758.0</ele><time>2026-04-03T08:16:10Z</time></trkpt><trkpt lat="44.17148027286617" lon="3.7027915695370157"><ele>757.0</ele><time>2026-04-03T08:16:11Z</time></trkpt><trkpt lat="44.17157466587655" lon="3.7027184886971054"><ele>756.0</ele><time>2026-04-03T08:16:12Z</time></trkpt><trkpt lat="44.17165761245698" lon="3.7026560669936344"><ele>755.0</ele><time>2026-04-03T08:16:13Z</time></trkpt><trkpt lat="44.17176226123172" lon="3.7025859926165707"><ele>754.0</ele><time>2026-04-03T08:16:14Z</time></trkpt><trkpt lat="44.17186333878662" lon="3.7025068357296385"><ele>753.0</ele><time>2026-04-03T08:16:15Z</time></trkpt><trkpt lat="44.171971565966295" lon="3.7024220364869223"><ele>753.0</ele><time>2026-04-03T08:16:16Z</time></trkpt><trkpt lat="44.17209170852185" lon="3.7023488229515347"><ele>753.0</ele><time>2026-04-03T08:16:17Z</time></trkpt><trkpt lat="44.172214600112845" lon="3.7022925479139346"><ele>753.0</ele><time>2026-04-03T08:16:18Z</time></trkpt><trkpt lat="44.17234308634396" lon="3.702200925290827"><ele>753.0</ele><time>2026-04-03T08:16:19Z</time></trkpt><trkpt lat="44.17246710190782" lon="3.702072674787642"><ele>750.5</ele><time>2026-04-03T08:16:20Z</time></trkpt><trkpt lat="44.172581827018156" lon="3.7019511848384914"><ele>748.0</ele><time>2026-04-03T08:16:21Z</time></trkpt><trkpt lat="44.172694788700944" lon="3.7018486103279273"><ele>745.5</ele><time>2026-04-03T08:16:22Z</time></trkpt><trkpt lat="44.17280240455146" lon="3.701760095215268"><ele>743.0</ele><time>2026-04-03T08:16:23Z</time></trkpt><trkpt lat="44.1728987184204" lon="3.7016785312822393"><ele>743.0</ele><time>2026-04-03T08:16:24Z</time></trkpt><trkpt lat="44.17298234667369" lon="3.7015945725472186"><ele>743.0</ele><time>2026-04-03T08:16:25Z</time></trkpt><trkpt lat="44.1730550415792" lon="3.7015214547894173"><ele>743.0</ele><time>2026-04-03T08:16:26Z</time></trkpt><trkpt lat="44.17315451385625" lon="3.7014096810494808"><ele>743.0</ele><time>2026-04-03T08:16:27Z</time></trkpt><trkpt lat="44.17324495563207" lon="3.7012287607768077"><ele>737.3333333333333</ele><time>2026-04-03T08:16:28Z</time></trkpt><trkpt lat="44.17334969170667" lon="3.7010299673514404"><ele>731.6666666666666</ele><time>2026-04-03T08:16:29Z</time></trkpt><trkpt lat="44.17346596553535" lon="3.7008198613135694"><ele>726.0</ele><time>2026-04-03T08:16:30Z</time></trkpt><trkpt lat="44.17358487357797" lon="3.7005942903850504"><ele>726.0</ele><time>2026-04-03T08:16:31Z</time></trkpt><trkpt lat="44.173690964039594" lon="3.7003823175622403"><ele>726.0</ele><time>2026-04-03T08:16:32Z</time></trkpt><trkpt lat="44.17378658954904" lon="3.7001890895823863"><ele>726.0</ele><time>2026-04-03T08:16:33Z</time></trkpt><trkpt lat="44.1738819068068" lon="3.7000001010711143"><ele>728.0</ele><time>2026-04-03T08:16:34Z</time></trkpt><trkpt lat="44.17397381418855" lon="3.6998125575740803"><ele>730.0</ele><time>2026-04-03T08:16:35Z</time></trkpt><trkpt lat="44.17408740654732" lon="3.6996252549043245"><ele>732.0</ele><time>2026-04-03T08:16:36Z</time></trkpt><trkpt lat="44.17417052690899" lon="3.6994177166366677"><ele>725.75</ele><time>2026-04-03T08:16:37Z</time></trkpt><trkpt lat="44.174251591491156" lon="3.6992147107138855"><ele>719.5</ele><time>2026-04-03T08:16:38Z</time></trkpt><trkpt lat="44.174310767184274" lon="3.699025970056812"><ele>713.25</ele><time>2026-04-03T08:16:39Z</time></trkpt><trkpt lat="44.17435571563563" lon="3.6988818818467997"><ele>707.0</ele><time>2026-04-03T08:16:40Z</time></trkpt><trkpt lat="44.174386009785984" lon="3.6987534380629046"><ele>707.0</ele><time>2026-04-03T08:16:41Z</time></trkpt><trkpt lat="44.17440143654424" lon="3.6986464241664083"><ele>707.0</ele><time>2026-04-03T08:16:42Z</time></trkpt><trkpt lat="44.1744763140214" lon="3.698611214993495"><ele>707.0</ele><time>2026-04-03T08:16:44Z</time></trkpt><trkpt lat="44.174519617557536" lon="3.698681705904151"><ele>707.0</ele><time>2026-04-03T08:16:45Z</time></trkpt><trkpt lat="44.174537123013806" lon="3.6988061810673925"><ele>707.0</ele><time>2026-04-03T08:16:46Z</time></trkpt><trkpt lat="44.17458786486261" lon="3.6989724706869547"><ele>707.0</ele><time>2026-04-03T08:16:47Z</time></trkpt><trkpt lat="44.17462012695937" lon="3.699174114287559"><ele>707.0</ele><time>2026-04-03T08:16:48Z</time></trkpt><trkpt lat="44.17465611459151" lon="3.6993924999942713"><ele>707.0</ele><time>2026-04-03T08:16:49Z</time></trkpt><trkpt lat="44.174716024189316" lon="3.699620686952561"><ele>707.0</ele><time>2026-04-03T08:16:50Z</time></trkpt><trkpt lat="44.17479625745484" lon="3.699847365004958"><ele>698.6666666666666</ele><time>2026-04-03T08:16:51Z</time></trkpt><trkpt lat="44.17487364048995" lon="3.7000545159320652"><ele>690.3333333333334</ele><time>2026-04-03T08:16:52Z</time></trkpt><trkpt lat="44.174957204975804" lon="3.7002501803375156"><ele>682.0</ele><time>2026-04-03T08:16:53Z</time></trkpt><trkpt lat="44.175050537037635" lon="3.700411166437228"><ele>682.0</ele><time>2026-04-03T08:16:54Z</time></trkpt><trkpt lat="44.17514073124526" lon="3.700561880220349"><ele>682.0</ele><time>2026-04-03T08:16:55Z</time></trkpt><trkpt lat="44.17521074999734" lon="3.7007164158398136"><ele>682.0</ele><time>2026-04-03T08:16:56Z</time></trkpt><trkpt lat="44.17524120322206" lon="3.7008911517457825"><ele>682.0</ele><time>2026-04-03T08:16:57Z</time></trkpt><trkpt lat="44.175294968828815" lon="3.7010364207430286"><ele>680.75</ele><time>2026-04-03T08:16:58Z</time></trkpt><trkpt lat="44.17532402551419" lon="3.701187263166705"><ele>679.5</ele><time>2026-04-03T08:16:59Z</time></trkpt><trkpt lat="44.175354033016895" lon="3.701358250066454"><ele>678.25</ele><time>2026-04-03T08:17:00Z</time></trkpt><trkpt lat="44.17537552636211" lon="3.7015504197812734"><ele>677.0</ele><time>2026-04-03T08:17:01Z</time></trkpt><trkpt lat="44.17539884821108" lon="3.7017698838772053"><ele>675.0</ele><time>2026-04-03T08:17:02Z</time></trkpt><trkpt lat="44.17542742520887" lon="3.701963030447097"><ele>673.0</ele><time>2026-04-03T08:17:03Z</time></trkpt><trkpt lat="44.17546035398921" lon="3.702127238589938"><ele>671.0</ele><time>2026-04-03T08:17:04Z</time></trkpt><trkpt lat="44.17548096503171" lon="3.702257952963421"><ele>669.0</ele><time>2026-04-03T08:17:05Z</time></trkpt><trkpt lat="44.17548845630797" lon="3.702397147853033"><ele>669.0</ele><time>2026-04-03T08:17:06Z</time></trkpt><trkpt lat="44.17551497508697" lon="3.7025219623836425"><ele>669.0</ele><time>2026-04-03T08:17:08Z</time></trkpt><trkpt lat="44.17561529444086" lon="3.702485054589933"><ele>669.0</ele><time>2026-04-03T08:17:10Z</time></trkpt><trkpt lat="44.17569430596758" lon="3.7023603978777233"><ele>669.0</ele><time>2026-04-03T08:17:12Z</time></trkpt><trkpt lat="44.17573686483592" lon="3.7022808917508883"><ele>669.0</ele><time>2026-04-03T08:17:13Z</time></trkpt><trkpt lat="44.175791919907425" lon="3.702169869638342"><ele>664.0</ele><time>2026-04-03T08:17:14Z</time></trkpt><trkpt lat="44.17585782174237" lon="3.7020298052059535"><ele>659.0</ele><time>2026-04-03T08:17:15Z</time></trkpt><trkpt lat="44.17590867467064" lon="3.70185743776016"><ele>654.0</ele><time>2026-04-03T08:17:16Z</time></trkpt><trkpt lat="44.175968144247584" lon="3.7016821788549366"><ele>649.0</ele><time>2026-04-03T08:17:17Z</time></trkpt><trkpt lat="44.17602943730464" lon="3.7015039417696016"><ele>649.0</ele><time>2026-04-03T08:17:18Z</time></trkpt><trkpt lat="44.17612631919295" lon="3.701344667795661"><ele>649.0</ele><time>2026-04-03T08:17:19Z</time></trkpt><trkpt lat="44.176223290857216" lon="3.701165892743181"><ele>649.0</ele><time>2026-04-03T08:17:20Z</time></trkpt><trkpt lat="44.17630948143646" lon="3.7010069821804263"><ele>650.5</ele><time>2026-04-03T08:17:21Z</time></trkpt><trkpt lat="44.17637836123236" lon="3.700844662379381"><ele>652.0</ele><time>2026-04-03T08:17:22Z</time></trkpt><trkpt lat="44.17644763873997" lon="3.700705580657468"><ele>653.5</ele><time>2026-04-03T08:17:23Z</time></trkpt><trkpt lat="44.17650135564503" lon="3.700546621576803"><ele>655.0</ele><time>2026-04-03T08:17:24Z</time></trkpt><trkpt lat="44.17653168935482" lon="3.7003848982567704"><ele>647.75</ele><time>2026-04-03T08:17:25Z</time></trkpt><trkpt lat="44.176538745990854" lon="3.700209301982359"><ele>640.5</ele><time>2026-04-03T08:17:26Z</time></trkpt><trkpt lat="44.17656407536525" lon="3.7000365082405136"><ele>633.25</ele><time>2026-04-03T08:17:27Z</time></trkpt><trkpt lat="44.176584962368324" lon="3.6998672825933525"><ele>626.0</ele><time>2026-04-03T08:17:28Z</time></trkpt><trkpt lat="44.17660212376678" lon="3.6997282416376343"><ele>626.0</ele><time>2026-04-03T08:17:29Z</time></trkpt><trkpt lat="44.1766150650972" lon="3.6996081728150543"><ele>626.0</ele><time>2026-04-03T08:17:30Z</time></trkpt><trkpt lat="44.17661093289714" lon="3.6994954824731723"><ele>626.0</ele><time>2026-04-03T08:17:31Z</time></trkpt><trkpt lat="44.17667165747159" lon="3.6993838345227994"><ele>626.0</ele><time>2026-04-03T08:17:33Z</time></trkpt><trkpt lat="44.17673998085681" lon="3.6994797048944164"><ele>626.0</ele><time>2026-04-03T08:17:35Z</time></trkpt><trkpt lat="44.176724198271586" lon="3.6995735212979155"><ele>626.0</ele><time>2026-04-03T08:17:36Z</time></trkpt><trkpt lat="44.17674969736665" lon="3.6997298410080335"><ele>626.0</ele><time>2026-04-03T08:17:38Z</time></trkpt><trkpt lat="44.17677624645434" lon="3.6998326637249446"><ele>626.0</ele><time>2026-04-03T08:17:39Z</time></trkpt><trkpt lat="44.17681237241829" lon="3.6999633341281957"><ele>626.0</ele><time>2026-04-03T08:17:40Z</time></trkpt><trkpt lat="44.176845631074244" lon="3.700122315665092"><ele>626.0</ele><time>2026-04-03T08:17:41Z</time></trkpt><trkpt lat="44.17687783795952" lon="3.7002843729747426"><ele>626.0</ele><time>2026-04-03T08:17:42Z</time></trkpt><trkpt lat="44.1769129510151" lon="3.70044714132797"><ele>626.0</ele><time>2026-04-03T08:17:43Z</time></trkpt><trkpt lat="44.17695626874829" lon="3.7006093241519364"><ele>626.0</ele><time>2026-04-03T08:17:44Z</time></trkpt><trkpt lat="44.17700438033882" lon="3.7007642544733637"><ele>626.0</ele><time>2026-04-03T08:17:45Z</time></trkpt><trkpt lat="44.17705015310873" lon="3.7009135525393746"><ele>626.0</ele><time>2026-04-03T08:17:46Z</time></trkpt><trkpt lat="44.17709332198558" lon="3.7010574494173953"><ele>624.75</ele><time>2026-04-03T08:17:47Z</time></trkpt><trkpt lat="44.17713461915536" lon="3.7012011934700184"><ele>623.5</ele><time>2026-04-03T08:17:48Z</time></trkpt><trkpt lat="44.17717771993194" lon="3.701356013503302"><ele>622.25</ele><time>2026-04-03T08:17:49Z</time></trkpt><trkpt lat="44.17720589182251" lon="3.7015279458947874"><ele>621.0</ele><time>2026-04-03T08:17:50Z</time></trkpt><trkpt lat="44.17722911047269" lon="3.7017165632399833"><ele>621.0</ele><time>2026-04-03T08:17:51Z</time></trkpt><trkpt lat="44.17721592696989" lon="3.701913370664758"><ele>621.0</ele><time>2026-04-03T08:17:52Z</time></trkpt><trkpt lat="44.177233341021946" lon="3.702104835545131"><ele>621.0</ele><time>2026-04-03T08:17:53Z</time></trkpt><trkpt lat="44.17724137422151" lon="3.7022978916145197"><ele>621.0</ele><time>2026-04-03T08:17:54Z</time></trkpt><trkpt lat="44.17725852387344" lon="3.7024890684958467"><ele>620.0</ele><time>2026-04-03T08:17:55Z</time></trkpt><trkpt lat="44.17727497860335" lon="3.702695269933057"><ele>619.0</ele><time>2026-04-03T08:17:56Z</time></trkpt><trkpt lat="44.177288723525585" lon="3.7028953380370306"><ele>618.0</ele><time>2026-04-03T08:17:57Z</time></trkpt><trkpt lat="44.17730217439314" lon="3.703076231757387"><ele>617.0</ele><time>2026-04-03T08:17:58Z</time></trkpt><trkpt lat="44.17731540245148" lon="3.703241886240671"><ele>615.4</ele><time>2026-04-03T08:17:59Z</time></trkpt><trkpt lat="44.17732666846421" lon="3.703396706949504"><ele>613.8000000000001</ele><time>2026-04-03T08:18:00Z</time></trkpt><trkpt lat="44.17730352528908" lon="3.703554689411985"><ele>612.2</ele><time>2026-04-03T08:18:01Z</time></trkpt><trkpt lat="44.17726646418345" lon="3.7036867706963683"><ele>610.6</ele><time>2026-04-03T08:18:02Z</time></trkpt><trkpt lat="44.1771885990966" lon="3.7037846228778357"><ele>609.0</ele><time>2026-04-03T08:18:03Z</time></trkpt><trkpt lat="44.177090681102634" lon="3.703823176231717"><ele>607.8333333333334</ele><time>2026-04-03T08:18:04Z</time></trkpt><trkpt lat="44.177018358681565" lon="3.703881987736919"><ele>606.6666666666666</ele><time>2026-04-03T08:18:05Z</time></trkpt><trkpt lat="44.176963435686964" lon="3.7039614031309926"><ele>605.5</ele><time>2026-04-03T08:18:06Z</time></trkpt><trkpt lat="44.17692959041784" lon="3.70406807589217"><ele>604.3333333333333</ele><time>2026-04-03T08:18:07Z</time></trkpt><trkpt lat="44.17694056192961" lon="3.7041922965019536"><ele>603.1666666666666</ele><time>2026-04-03T08:18:08Z</time></trkpt><trkpt lat="44.17699794072381" lon="3.704313451834861"><ele>602.0</ele><time>2026-04-03T08:18:09Z</time></trkpt><trkpt lat="44.17708062419768" lon="3.704455638358461"><ele>601.1666666666666</ele><time>2026-04-03T08:18:10Z</time></trkpt><trkpt lat="44.17713960722101" lon="3.704595570096852"><ele>600.3333333333333</ele><time>2026-04-03T08:18:11Z</time></trkpt><trkpt lat="44.177189421906256" lon="3.7047311704880044"><ele>599.5</ele><time>2026-04-03T08:18:12Z</time></trkpt><trkpt lat="44.17722581591288" lon="3.7048271740537126"><ele>598.6666666666666</ele><time>2026-04-03T08:18:13Z</time></trkpt><trkpt lat="44.17726809063366" lon="3.7049114403841275"><ele>597.8333333333334</ele><time>2026-04-03T08:18:14Z</time></trkpt><trkpt lat="44.177301381432294" lon="3.7049921959459713"><ele>597.0</ele><time>2026-04-03T08:18:15Z</time></trkpt><trkpt lat="44.177327133401626" lon="3.7050728275907683"><ele>597.0</ele><time>2026-04-03T08:18:16Z</time></trkpt><trkpt lat="44.17731469027226" lon="3.7052029554802557"><ele>597.0</ele><time>2026-04-03T08:18:18Z</time></trkpt><trkpt lat="44.17726418911234" lon="3.705257162784826"><ele>597.0</ele><time>2026-04-03T08:18:19Z</time></trkpt><trkpt lat="44.17721963872279" lon="3.705393662959065"><ele>597.0</ele><time>2026-04-03T08:18:21Z</time></trkpt><trkpt lat="44.17717504204202" lon="3.7055056174747008"><ele>597.0</ele><time>2026-04-03T08:18:23Z</time></trkpt><trkpt lat="44.1770827395555" lon="3.70566941876616"><ele>593.25</ele><time>2026-04-03T08:18:25Z</time></trkpt><trkpt lat="44.17701567446261" lon="3.7057897301058755"><ele>589.5</ele><time>2026-04-03T08:18:26Z</time></trkpt><trkpt lat="44.176942102726066" lon="3.7059270619283087"><ele>585.75</ele><time>2026-04-03T08:18:27Z</time></trkpt><trkpt lat="44.176877168275794" lon="3.7060639592653133"><ele>582.0</ele><time>2026-04-03T08:18:28Z</time></trkpt><trkpt lat="44.176813131891" lon="3.706200002661597"><ele>582.8000000000001</ele><time>2026-04-03T08:18:29Z</time></trkpt><trkpt lat="44.17674971320972" lon="3.7063274411953993"><ele>583.6</ele><time>2026-04-03T08:18:30Z</time></trkpt><trkpt lat="44.17668743330615" lon="3.7064433516969832"><ele>584.4000000000001</ele><time>2026-04-03T08:18:31Z</time></trkpt><trkpt lat="44.17661669193311" lon="3.7065508601971953"><ele>585.2</ele><time>2026-04-03T08:18:32Z</time></trkpt><trkpt lat="44.17654819957763" lon="3.7066476868231257"><ele>586.0</ele><time>2026-04-03T08:18:33Z</time></trkpt><trkpt lat="44.17647265267183" lon="3.7067360422652693"><ele>586.0</ele><time>2026-04-03T08:18:34Z</time></trkpt><trkpt lat="44.17639419160209" lon="3.70679460022435"><ele>586.0</ele><time>2026-04-03T08:18:35Z</time></trkpt><trkpt lat="44.17631345881847" lon="3.706833696484694"><ele>586.0</ele><time>2026-04-03T08:18:36Z</time></trkpt><trkpt lat="44.17623354530336" lon="3.7068676674944543"><ele>586.0</ele><time>2026-04-03T08:18:37Z</time></trkpt><trkpt lat="44.17617475440013" lon="3.70691104319972"><ele>586.0</ele><time>2026-04-03T08:18:38Z</time></trkpt><trkpt lat="44.176154986299636" lon="3.7070810671154395"><ele>586.0</ele><time>2026-04-03T08:18:40Z</time></trkpt><trkpt lat="44.17620962757904" lon="3.707170694078778"><ele>585.0</ele><time>2026-04-03T08:18:41Z</time></trkpt><trkpt lat="44.1762748616735" lon="3.707257804970219"><ele>584.0</ele><time>2026-04-03T08:18:42Z</time></trkpt><trkpt lat="44.176364364796676" lon="3.707351242299928"><ele>583.0</ele><time>2026-04-03T08:18:43Z</time></trkpt><trkpt lat="44.17647596829241" lon="3.7074312035211734"><ele>582.0</ele><time>2026-04-03T08:18:44Z</time></trkpt><trkpt lat="44.17659437688839" lon="3.7074852388836055"><ele>577.0</ele><time>2026-04-03T08:18:45Z</time></trkpt><trkpt lat="44.176719921583285" lon="3.7075138425276317"><ele>572.0</ele><time>2026-04-03T08:18:46Z</time></trkpt><trkpt lat="44.17683135348389" lon="3.707538790185365"><ele>567.0</ele><time>2026-04-03T08:18:47Z</time></trkpt><trkpt lat="44.17691241903013" lon="3.70760409810652"><ele>562.0</ele><time>2026-04-03T08:18:48Z</time></trkpt><trkpt lat="44.176967396688255" lon="3.707670108037991"><ele>557.0</ele><time>2026-04-03T08:18:49Z</time></trkpt><trkpt lat="44.177004495840976" lon="3.70776730376616"><ele>556.8000000000001</ele><time>2026-04-03T08:18:50Z</time></trkpt><trkpt lat="44.177031130229956" lon="3.7079036749441805"><ele>556.6</ele><time>2026-04-03T08:18:51Z</time></trkpt><trkpt lat="44.17704846001803" lon="3.7080621454999396"><ele>556.4000000000001</ele><time>2026-04-03T08:18:52Z</time></trkpt><trkpt lat="44.17705292370534" lon="3.7082234736537223"><ele>556.2</ele><time>2026-04-03T08:18:53Z</time></trkpt><trkpt lat="44.177036512966524" lon="3.7083660806243666"><ele>556.0</ele><time>2026-04-03T08:18:54Z</time></trkpt><trkpt lat="44.17700797348477" lon="3.7085010072389175"><ele>553.5</ele><time>2026-04-03T08:18:55Z</time></trkpt><trkpt lat="44.17697688415473" lon="3.7086272236696405"><ele>551.0</ele><time>2026-04-03T08:18:56Z</time></trkpt><trkpt lat="44.1769303530482" lon="3.7087781723929245"><ele>548.5</ele><time>2026-04-03T08:18:57Z</time></trkpt><trkpt lat="44.17686591116413" lon="3.708949827674899"><ele>546.0</ele><time>2026-04-03T08:18:58Z</time></trkpt><trkpt lat="44.17680906249961" lon="3.7091248382134"><ele>546.0</ele><time>2026-04-03T08:18:59Z</time></trkpt><trkpt lat="44.176735751209954" lon="3.7092782847311105"><ele>546.0</ele><time>2026-04-03T08:19:00Z</time></trkpt><trkpt lat="44.17665909292999" lon="3.7094261206598995"><ele>546.0</ele><time>2026-04-03T08:19:01Z</time></trkpt><trkpt lat="44.176555017020505" lon="3.7095664515870266"><ele>546.0</ele><time>2026-04-03T08:19:02Z</time></trkpt><trkpt lat="44.17644505203263" lon="3.709747195366048"><ele>544.6666666666666</ele><time>2026-04-03T08:19:03Z</time></trkpt><trkpt lat="44.176345884431186" lon="3.709919040136006"><ele>543.3333333333333</ele><time>2026-04-03T08:19:04Z</time></trkpt><trkpt lat="44.176244707058586" lon="3.7101374679824426"><ele>542.0</ele><time>2026-04-03T08:19:05Z</time></trkpt><trkpt lat="44.17612614113846" lon="3.710378012871924"><ele>542.0</ele><time>2026-04-03T08:19:06Z</time></trkpt><trkpt lat="44.17604030515292" lon="3.7106125884230092"><ele>542.0</ele><time>2026-04-03T08:19:07Z</time></trkpt><trkpt lat="44.17597420554364" lon="3.71084707055824"><ele>542.0</ele><time>2026-04-03T08:19:08Z</time></trkpt><trkpt lat="44.17591214576216" lon="3.711067124305736"><ele>537.6666666666666</ele><time>2026-04-03T08:19:09Z</time></trkpt><trkpt lat="44.17583457829513" lon="3.711281678190873"><ele>533.3333333333334</ele><time>2026-04-03T08:19:10Z</time></trkpt><trkpt lat="44.17572762207666" lon="3.711443554032689"><ele>529.0</ele><time>2026-04-03T08:19:11Z</time></trkpt><trkpt lat="44.175639319240624" lon="3.711571365932404"><ele>529.0</ele><time>2026-04-03T08:19:12Z</time></trkpt><trkpt lat="44.17557190565054" lon="3.7116524372973636"><ele>529.0</ele><time>2026-04-03T08:19:13Z</time></trkpt><trkpt lat="44.175509614184946" lon="3.711708944684856"><ele>529.0</ele><time>2026-04-03T08:19:14Z</time></trkpt><trkpt lat="44.175407271907446" lon="3.7117598429124796"><ele>529.0</ele><time>2026-04-03T08:19:16Z</time></trkpt><trkpt lat="44.17530427795181" lon="3.7116878783751686"><ele>529.0</ele><time>2026-04-03T08:19:17Z</time></trkpt><trkpt lat="44.17515996478572" lon="3.7116433379845906"><ele>529.0</ele><time>2026-04-03T08:19:18Z</time></trkpt><trkpt lat="44.17499752609514" lon="3.7116091113243694"><ele>529.0</ele><time>2026-04-03T08:19:19Z</time></trkpt><trkpt lat="44.17483019816797" lon="3.7116117808258147"><ele>529.0</ele><time>2026-04-03T08:19:20Z</time></trkpt><trkpt lat="44.17466371658191" lon="3.7116230548395093"><ele>529.3333333333334</ele><time>2026-04-03T08:19:21Z</time></trkpt><trkpt lat="44.1745038418252" lon="3.7116267008730355"><ele>529.6666666666666</ele><time>2026-04-03T08:19:22Z</time></trkpt><trkpt lat="44.174355304136164" lon="3.7116903621641684"><ele>530.0</ele><time>2026-04-03T08:19:23Z</time></trkpt><trkpt lat="44.17421272033644" lon="3.711714165999071"><ele>530.0</ele><time>2026-04-03T08:19:24Z</time></trkpt><trkpt lat="44.17409564174891" lon="3.711763666876666"><ele>530.0</ele><time>2026-04-03T08:19:25Z</time></trkpt><trkpt lat="44.17400928790702" lon="3.711850899777533"><ele>530.0</ele><time>2026-04-03T08:19:26Z</time></trkpt><trkpt lat="44.17394224007341" lon="3.7119469809815477"><ele>530.0</ele><time>2026-04-03T08:19:27Z</time></trkpt><trkpt lat="44.173917769864744" lon="3.712072823692369"><ele>530.0</ele><time>2026-04-03T08:19:28Z</time></trkpt><trkpt lat="44.173941426481534" lon="3.7121868164516707"><ele>529.8</ele><time>2026-04-03T08:19:29Z</time></trkpt><trkpt lat="44.17400037021261" lon="3.7122498058621423"><ele>529.6</ele><time>2026-04-03T08:19:30Z</time></trkpt><trkpt lat="44.1741035936704" lon="3.712286573516618"><ele>529.4</ele><time>2026-04-03T08:19:31Z</time></trkpt><trkpt lat="44.174229537501155" lon="3.712340082910285"><ele>529.2</ele><time>2026-04-03T08:19:32Z</time></trkpt><trkpt lat="44.17434305326308" lon="3.7124167964168495"><ele>529.0</ele><time>2026-04-03T08:19:33Z</time></trkpt><trkpt lat="44.17447438555019" lon="3.7125231985754783"><ele>529.0</ele><time>2026-04-03T08:19:34Z</time></trkpt><trkpt lat="44.17461484509835" lon="3.7126609279284364"><ele>529.0</ele><time>2026-04-03T08:19:35Z</time></trkpt><trkpt lat="44.17478117884533" lon="3.7128048046412983"><ele>529.0</ele><time>2026-04-03T08:19:36Z</time></trkpt><trkpt lat="44.17494787331087" lon="3.712949976166214"><ele>529.25</ele><time>2026-04-03T08:19:37Z</time></trkpt><trkpt lat="44.17509630864476" lon="3.7130564653237648"><ele>529.5</ele><time>2026-04-03T08:19:38Z</time></trkpt><trkpt lat="44.17522908286654" lon="3.7131363249817535"><ele>529.75</ele><time>2026-04-03T08:19:39Z</time></trkpt><trkpt lat="44.1753444292599" lon="3.71320853579118"><ele>530.0</ele><time>2026-04-03T08:19:40Z</time></trkpt><trkpt lat="44.17545493230883" lon="3.7132906130318393"><ele>530.0</ele><time>2026-04-03T08:19:41Z</time></trkpt><trkpt lat="44.17557547424396" lon="3.713424896488139"><ele>530.0</ele><time>2026-04-03T08:19:42Z</time></trkpt><trkpt lat="44.175724969601376" lon="3.7135604850717137"><ele>530.0</ele><time>2026-04-03T08:19:43Z</time></trkpt><trkpt lat="44.175898583402315" lon="3.7136803453627145"><ele>530.3333333333333</ele><time>2026-04-03T08:19:44Z</time></trkpt><trkpt lat="44.17604005930755" lon="3.713780090866109"><ele>530.6666666666666</ele><time>2026-04-03T08:19:45Z</time></trkpt><trkpt lat="44.176198672688194" lon="3.7138521593672573"><ele>531.0</ele><time>2026-04-03T08:19:46Z</time></trkpt><trkpt lat="44.17640995762664" lon="3.7139094191339415"><ele>524.5</ele><time>2026-04-03T08:19:47Z</time></trkpt><trkpt lat="44.17664894580239" lon="3.713957461574303"><ele>518.0</ele><time>2026-04-03T08:19:48Z</time></trkpt><trkpt lat="44.17685831249256" lon="3.714028330167724"><ele>518.0</ele><time>2026-04-03T08:19:49Z</time></trkpt><trkpt lat="44.177028781060116" lon="3.714105472959502"><ele>518.0</ele><time>2026-04-03T08:19:50Z</time></trkpt><trkpt lat="44.17716470092479" lon="3.714155199924024"><ele>518.0</ele><time>2026-04-03T08:19:51Z</time></trkpt><trkpt lat="44.17727459595804" lon="3.7141978290271007"><ele>518.0</ele><time>2026-04-03T08:19:52Z</time></trkpt><trkpt lat="44.17734794497414" lon="3.714254572344278"><ele>516.1999999999999</ele><time>2026-04-03T08:19:53Z</time></trkpt><trkpt lat="44.17738434900689" lon="3.714353644774699"><ele>514.4</ele><time>2026-04-03T08:19:54Z</time></trkpt><trkpt lat="44.1773537520251" lon="3.714488613524955"><ele>512.5999999999999</ele><time>2026-04-03T08:19:55Z</time></trkpt><trkpt lat="44.17732027438232" lon="3.714640349510863"><ele>510.79999999999995</ele><time>2026-04-03T08:19:56Z</time></trkpt><trkpt lat="44.17731339171373" lon="3.714835987080723"><ele>509.0</ele><time>2026-04-03T08:19:57Z</time></trkpt><trkpt lat="44.17733597499378" lon="3.715014123843127"><ele>509.0</ele><time>2026-04-03T08:19:58Z</time></trkpt><trkpt lat="44.17740177490481" lon="3.7151742357764177"><ele>509.0</ele><time>2026-04-03T08:19:59Z</time></trkpt><trkpt lat="44.177510781099414" lon="3.7153254138946425"><ele>509.0</ele><time>2026-04-03T08:20:00Z</time></trkpt><trkpt lat="44.17761535991518" lon="3.7154594911792906"><ele>509.0</ele><time>2026-04-03T08:20:01Z</time></trkpt><trkpt lat="44.17770049921896" lon="3.715595866246901"><ele>512.6666666666666</ele><time>2026-04-03T08:20:02Z</time></trkpt><trkpt lat="44.1777759747322" lon="3.715774855832433"><ele>516.3333333333334</ele><time>2026-04-03T08:20:03Z</time></trkpt><trkpt lat="44.17784450498962" lon="3.715974625067807"><ele>520.0</ele><time>2026-04-03T08:20:04Z</time></trkpt><trkpt lat="44.17791139191193" lon="3.7161803483810427"><ele>524.0</ele><time>2026-04-03T08:20:05Z</time></trkpt><trkpt lat="44.17797171542815" lon="3.7164091319263197"><ele>528.0</ele><time>2026-04-03T08:20:06Z</time></trkpt><trkpt lat="44.1780337339519" lon="3.716653073061337"><ele>532.0</ele><time>2026-04-03T08:20:07Z</time></trkpt><trkpt lat="44.17810680698187" lon="3.7168961580951936"><ele>532.0</ele><time>2026-04-03T08:20:08Z</time></trkpt><trkpt lat="44.17817724632837" lon="3.7171054959074663"><ele>532.0</ele><time>2026-04-03T08:20:09Z</time></trkpt><trkpt lat="44.178223858945614" lon="3.717265617893694"><ele>532.0</ele><time>2026-04-03T08:20:10Z</time></trkpt><trkpt lat="44.178220069465944" lon="3.7174090517731293"><ele>532.0</ele><time>2026-04-03T08:20:11Z</time></trkpt><trkpt lat="44.17819909942444" lon="3.7175752220444833"><ele>529.6666666666667</ele><time>2026-04-03T08:20:12Z</time></trkpt><trkpt lat="44.17816613120949" lon="3.717799236500901"><ele>527.3333333333334</ele><time>2026-04-03T08:20:13Z</time></trkpt><trkpt lat="44.17814450277126" lon="3.7180498515483538"><ele>525.0</ele><time>2026-04-03T08:20:14Z</time></trkpt><trkpt lat="44.17812185969179" lon="3.718281631644154"><ele>525.0</ele><time>2026-04-03T08:20:15Z</time></trkpt><trkpt lat="44.17805215197908" lon="3.718501892476267"><ele>525.0</ele><time>2026-04-03T08:20:16Z</time></trkpt><trkpt lat="44.17805215197708" lon="3.718680483178038"><ele>525.0</ele><time>2026-04-03T08:20:17Z</time></trkpt><trkpt lat="44.17821045530681" lon="3.7188426789453923"><ele>518.4</ele><time>2026-04-03T08:20:18Z</time></trkpt><trkpt lat="44.17829043649572" lon="3.7189807838571554"><ele>511.8</ele><time>2026-04-03T08:20:19Z</time></trkpt><trkpt lat="44.17836336778375" lon="3.719109819270403"><ele>505.20000000000005</ele><time>2026-04-03T08:20:20Z</time></trkpt><trkpt lat="44.17841201655512" lon="3.719238171945081"><ele>498.6</ele><time>2026-04-03T08:20:21Z</time></trkpt><trkpt lat="44.17844533458222" lon="3.7193479672052283"><ele>492.0</ele><time>2026-04-03T08:20:22Z</time></trkpt><trkpt lat="44.178463427415494" lon="3.719462065548103"><ele>493.8</ele><time>2026-04-03T08:20:23Z</time></trkpt><trkpt lat="44.1784264565239" lon="3.719582199694242"><ele>495.6</ele><time>2026-04-03T08:20:25Z</time></trkpt><trkpt lat="44.17836134975901" lon="3.719592538173958"><ele>497.40000000000003</ele><time>2026-04-03T08:20:26Z</time></trkpt><trkpt lat="44.17824135782611" lon="3.719608126004194"><ele>499.20000000000005</ele><time>2026-04-03T08:20:28Z</time></trkpt><trkpt lat="44.17816093192486" lon="3.719621620324352"><ele>501.0</ele><time>2026-04-03T08:20:29Z</time></trkpt><trkpt lat="44.1780503370589" lon="3.719643611545652"><ele>501.0</ele><time>2026-04-03T08:20:30Z</time></trkpt><trkpt lat="44.17792081209423" lon="3.719678429666577"><ele>501.0</ele><time>2026-04-03T08:20:31Z</time></trkpt><trkpt lat="44.177818344557146" lon="3.719738026540595"><ele>501.0</ele><time>2026-04-03T08:20:32Z</time></trkpt><trkpt lat="44.177743733782144" lon="3.719793305203019"><ele>501.0</ele><time>2026-04-03T08:20:33Z</time></trkpt><trkpt lat="44.177701160107524" lon="3.7198779838535385"><ele>501.0</ele><time>2026-04-03T08:20:34Z</time></trkpt><trkpt lat="44.177690952718336" lon="3.7199745441243253"><ele>501.0</ele><time>2026-04-03T08:20:35Z</time></trkpt><trkpt lat="44.177723008755194" lon="3.7200658897934646"><ele>501.0</ele><time>2026-04-03T08:20:36Z</time></trkpt><trkpt lat="44.17776255270469" lon="3.7201628777799263"><ele>501.0</ele><time>2026-04-03T08:20:37Z</time></trkpt><trkpt lat="44.1778038034707" lon="3.7202640384227195"><ele>501.0</ele><time>2026-04-03T08:20:38Z</time></trkpt><trkpt lat="44.1778454236993" lon="3.7203410839317956"><ele>501.0</ele><time>2026-04-03T08:20:39Z</time></trkpt><trkpt lat="44.17793864813237" lon="3.7204304237378976"><ele>501.0</ele><time>2026-04-03T08:20:41Z</time></trkpt><trkpt lat="44.17799933807162" lon="3.7204750191461633"><ele>502.0</ele><time>2026-04-03T08:20:42Z</time></trkpt><trkpt lat="44.178065257690974" lon="3.7205386354772374"><ele>503.0</ele><time>2026-04-03T08:20:43Z</time></trkpt><trkpt lat="44.17812449465752" lon="3.720614092599605"><ele>504.0</ele><time>2026-04-03T08:20:44Z</time></trkpt><trkpt lat="44.17816002997649" lon="3.72069157406771"><ele>505.0</ele><time>2026-04-03T08:20:45Z</time></trkpt><trkpt lat="44.17820560826524" lon="3.7208394170680883"><ele>506.0</ele><time>2026-04-03T08:20:47Z</time></trkpt><trkpt lat="44.17820824331363" lon="3.721017510982926"><ele>505.4</ele><time>2026-04-03T08:20:49Z</time></trkpt><trkpt lat="44.1781866185004" lon="3.721127092944051"><ele>504.8</ele><time>2026-04-03T08:20:50Z</time></trkpt><trkpt lat="44.178170626611504" lon="3.7212510818709292"><ele>504.19999999999993</ele><time>2026-04-03T08:20:51Z</time></trkpt><trkpt lat="44.17817530772729" lon="3.7213814334027218"><ele>503.59999999999997</ele><time>2026-04-03T08:20:52Z</time></trkpt><trkpt lat="44.17817676019963" lon="3.721518139912492"><ele>503.0</ele><time>2026-04-03T08:20:53Z</time></trkpt><trkpt lat="44.17819826526553" lon="3.7216624852720894"><ele>496.25</ele><time>2026-04-03T08:20:54Z</time></trkpt><trkpt lat="44.17823461229394" lon="3.7218323885594686"><ele>489.5</ele><time>2026-04-03T08:20:55Z</time></trkpt><trkpt lat="44.178272179844676" lon="3.722014943574646"><ele>482.75</ele><time>2026-04-03T08:20:56Z</time></trkpt><trkpt lat="44.17830665553324" lon="3.722191357734178"><ele>476.0</ele><time>2026-04-03T08:20:57Z</time></trkpt><trkpt lat="44.17833382974971" lon="3.7223532105497887"><ele>476.0</ele><time>2026-04-03T08:20:58Z</time></trkpt><trkpt lat="44.17835710193226" lon="3.7225036849658095"><ele>476.0</ele><time>2026-04-03T08:20:59Z</time></trkpt><trkpt lat="44.17838407566699" lon="3.722623427534496"><ele>476.0</ele><time>2026-04-03T08:21:00Z</time></trkpt><trkpt lat="44.178433394466815" lon="3.7227125640333987"><ele>476.0</ele><time>2026-04-03T08:21:01Z</time></trkpt><trkpt lat="44.17847780633615" lon="3.7227861280444197"><ele>476.0</ele><time>2026-04-03T08:21:02Z</time></trkpt><trkpt lat="44.178521819613415" lon="3.722957403261229"><ele>474.8333333333333</ele><time>2026-04-03T08:21:04Z</time></trkpt><trkpt lat="44.17852875066652" lon="3.7230778152636077"><ele>473.66666666666663</ele><time>2026-04-03T08:21:05Z</time></trkpt><trkpt lat="44.178526654495535" lon="3.7232117537898173"><ele>472.5</ele><time>2026-04-03T08:21:06Z</time></trkpt><trkpt lat="44.17852253937186" lon="3.723309653737066"><ele>471.33333333333337</ele><time>2026-04-03T08:21:07Z</time></trkpt><trkpt lat="44.178504686914934" lon="3.723409447715938"><ele>470.1666666666667</ele><time>2026-04-03T08:21:08Z</time></trkpt><trkpt lat="44.178463200557985" lon="3.7234806615150133"><ele>469.0</ele><time>2026-04-03T08:21:09Z</time></trkpt><trkpt lat="44.17840202500624" lon="3.7235281040353567"><ele>469.00000000000006</ele><time>2026-04-03T08:21:10Z</time></trkpt><trkpt lat="44.1783311549678" lon="3.7235346155055007"><ele>469.0</ele><time>2026-04-03T08:21:11Z</time></trkpt><trkpt lat="44.178257543311695" lon="3.723568088389565"><ele>469.0</ele><time>2026-04-03T08:21:12Z</time></trkpt><trkpt lat="44.178183390575796" lon="3.7236243616842706"><ele>469.0</ele><time>2026-04-03T08:21:13Z</time></trkpt><trkpt lat="44.17809032602322" lon="3.7236670945956574"><ele>469.00000000000006</ele><time>2026-04-03T08:21:14Z</time></trkpt><trkpt lat="44.17800845880232" lon="3.723699879647163"><ele>469.0</ele><time>2026-04-03T08:21:15Z</time></trkpt><trkpt lat="44.17793705325927" lon="3.723731776252211"><ele>469.1666666666667</ele><time>2026-04-03T08:21:16Z</time></trkpt><trkpt lat="44.17787501519944" lon="3.7237690019586"><ele>469.33333333333337</ele><time>2026-04-03T08:21:17Z</time></trkpt><trkpt lat="44.177817694255154" lon="3.723821215134878"><ele>469.5</ele><time>2026-04-03T08:21:18Z</time></trkpt><trkpt lat="44.17777417328443" lon="3.7238974722305653"><ele>469.66666666666663</ele><time>2026-04-03T08:21:19Z</time></trkpt><trkpt lat="44.17775093024728" lon="3.7239836918997176"><ele>469.8333333333333</ele><time>2026-04-03T08:21:20Z</time></trkpt><trkpt lat="44.177742220880475" lon="3.7241823858114573"><ele>470.0</ele><time>2026-04-03T08:21:22Z</time></trkpt><trkpt lat="44.17770800093159" lon="3.7243126306343872"><ele>467.5</ele><time>2026-04-03T08:21:23Z</time></trkpt><trkpt lat="44.177653554393125" lon="3.724456659592834"><ele>465.0</ele><time>2026-04-03T08:21:24Z</time></trkpt><trkpt lat="44.17759870327292" lon="3.724609822211917"><ele>462.5</ele><time>2026-04-03T08:21:25Z</time></trkpt><trkpt lat="44.177544818542785" lon="3.7247775501168925"><ele>460.0</ele><time>2026-04-03T08:21:26Z</time></trkpt><trkpt lat="44.1774905808504" lon="3.724964241532087"><ele>460.0</ele><time>2026-04-03T08:21:27Z</time></trkpt><trkpt lat="44.17744151386598" lon="3.7251379507776523"><ele>460.0</ele><time>2026-04-03T08:21:28Z</time></trkpt><trkpt lat="44.17738763073125" lon="3.7253089062483213"><ele>460.0</ele><time>2026-04-03T08:21:29Z</time></trkpt><trkpt lat="44.17732026387644" lon="3.7254626586759905"><ele>460.0</ele><time>2026-04-03T08:21:30Z</time></trkpt><trkpt lat="44.177239837225265" lon="3.725605208869872"><ele>458.75</ele><time>2026-04-03T08:21:31Z</time></trkpt><trkpt lat="44.17716488239414" lon="3.725759296788845"><ele>457.5</ele><time>2026-04-03T08:21:32Z</time></trkpt><trkpt lat="44.177108754781116" lon="3.7259376987935537"><ele>456.25</ele><time>2026-04-03T08:21:33Z</time></trkpt><trkpt lat="44.177060781581496" lon="3.726119951987188"><ele>455.0</ele><time>2026-04-03T08:21:34Z</time></trkpt><trkpt lat="44.17701778008928" lon="3.726288792843948"><ele>455.0</ele><time>2026-04-03T08:21:35Z</time></trkpt><trkpt lat="44.176978271398006" lon="3.726441146732319"><ele>455.0</ele><time>2026-04-03T08:21:36Z</time></trkpt><trkpt lat="44.17694271893272" lon="3.7265690059361853"><ele>455.0</ele><time>2026-04-03T08:21:37Z</time></trkpt><trkpt lat="44.17687756917377" lon="3.7266507545232077"><ele>455.0</ele><time>2026-04-03T08:21:38Z</time></trkpt><trkpt lat="44.17680230006498" lon="3.726725348095918"><ele>455.0</ele><time>2026-04-03T08:21:39Z</time></trkpt><trkpt lat="44.17669315147906" lon="3.726814626589592"><ele>454.25</ele><time>2026-04-03T08:21:40Z</time></trkpt><trkpt lat="44.176583859624294" lon="3.7269505603362925"><ele>453.5</ele><time>2026-04-03T08:21:41Z</time></trkpt><trkpt lat="44.17647891648488" lon="3.7270508926518398"><ele>452.75</ele><time>2026-04-03T08:21:42Z</time></trkpt><trkpt lat="44.17636443827103" lon="3.727107100628716"><ele>452.0</ele><time>2026-04-03T08:21:43Z</time></trkpt><trkpt lat="44.176241546721556" lon="3.7271679649630984"><ele>452.0</ele><time>2026-04-03T08:21:44Z</time></trkpt><trkpt lat="44.17612530616229" lon="3.727205013361037"><ele>452.00000000000006</ele><time>2026-04-03T08:21:45Z</time></trkpt><trkpt lat="44.17601101015896" lon="3.7272038913072056"><ele>452.00000000000006</ele><time>2026-04-03T08:21:46Z</time></trkpt><trkpt lat="44.175897504026054" lon="3.727190967946371"><ele>452.0</ele><time>2026-04-03T08:21:47Z</time></trkpt><trkpt lat="44.175814448311286" lon="3.7271909679437587"><ele>452.0</ele><time>2026-04-03T08:21:48Z</time></trkpt><trkpt lat="44.17574727210558" lon="3.727243692191874"><ele>451.99999999999994</ele><time>2026-04-03T08:21:49Z</time></trkpt><trkpt lat="44.175709765559795" lon="3.7273280925562644"><ele>452.0</ele><time>2026-04-03T08:21:50Z</time></trkpt><trkpt lat="44.17571845912932" lon="3.7274295196046747"><ele>452.0</ele><time>2026-04-03T08:21:51Z</time></trkpt><trkpt lat="44.175775007315735" lon="3.727592022589423"><ele>452.0</ele><time>2026-04-03T08:21:53Z</time></trkpt><trkpt lat="44.17584585889983" lon="3.727647412910632"><ele>451.99999999999994</ele><time>2026-04-03T08:21:54Z</time></trkpt><trkpt lat="44.17591274591991" lon="3.7276719128102664"><ele>452.0</ele><time>2026-04-03T08:21:55Z</time></trkpt><trkpt lat="44.17597964013275" lon="3.727686443491884"><ele>452.0</ele><time>2026-04-03T08:21:56Z</time></trkpt><trkpt lat="44.1760534757234" lon="3.727673111620278"><ele>452.0</ele><time>2026-04-03T08:21:57Z</time></trkpt><trkpt lat="44.176179821274644" lon="3.7276930495673866"><ele>452.0</ele><time>2026-04-03T08:21:58Z</time></trkpt><trkpt lat="44.176309174063235" lon="3.7276829245604666"><ele>452.0</ele><time>2026-04-03T08:21:59Z</time></trkpt><trkpt lat="44.17647297257012" lon="3.7276765788822526"><ele>452.25</ele><time>2026-04-03T08:22:00Z</time></trkpt><trkpt lat="44.176622281414026" lon="3.7276790648692764"><ele>452.5</ele><time>2026-04-03T08:22:01Z</time></trkpt><trkpt lat="44.176762299089106" lon="3.72767726959478"><ele>452.75</ele><time>2026-04-03T08:22:02Z</time></trkpt><trkpt lat="44.17689690559694" lon="3.7276730693333135"><ele>453.0</ele><time>2026-04-03T08:22:03Z</time></trkpt><trkpt lat="44.17702186004167" lon="3.7277301088876666"><ele>453.0</ele><time>2026-04-03T08:22:04Z</time></trkpt><trkpt lat="44.17714743977008" lon="3.727756645031269"><ele>453.0</ele><time>2026-04-03T08:22:05Z</time></trkpt><trkpt lat="44.17727480333314" lon="3.72776640190501"><ele>453.0</ele><time>2026-04-03T08:22:06Z</time></trkpt><trkpt lat="44.17741422720559" lon="3.727747023172787"><ele>453.0</ele><time>2026-04-03T08:22:07Z</time></trkpt><trkpt lat="44.177558555222745" lon="3.727712502800154"><ele>448.59999999999997</ele><time>2026-04-03T08:22:08Z</time></trkpt><trkpt lat="44.17769066552211" lon="3.7276897887853297"><ele>444.19999999999993</ele><time>2026-04-03T08:22:09Z</time></trkpt><trkpt lat="44.177797426354644" lon="3.727686748829338"><ele>439.8</ele><time>2026-04-03T08:22:10Z</time></trkpt><trkpt lat="44.17788146261857" lon="3.727712582717171"><ele>435.4</ele><time>2026-04-03T08:22:11Z</time></trkpt><trkpt lat="44.17794217421794" lon="3.7277745397568807"><ele>431.0</ele><time>2026-04-03T08:22:12Z</time></trkpt><trkpt lat="44.17798096647039" lon="3.7278756833560105"><ele>431.0</ele><time>2026-04-03T08:22:13Z</time></trkpt><trkpt lat="44.17799102759145" lon="3.727995028755173"><ele>431.0</ele><time>2026-04-03T08:22:14Z</time></trkpt><trkpt lat="44.17795076757874" lon="3.7281603442085145"><ele>431.0</ele><time>2026-04-03T08:22:15Z</time></trkpt><trkpt lat="44.17795063151372" lon="3.728356011664888"><ele>431.0</ele><time>2026-04-03T08:22:16Z</time></trkpt><trkpt lat="44.17792700470348" lon="3.7285216988244705"><ele>431.16666666666663</ele><time>2026-04-03T08:22:17Z</time></trkpt><trkpt lat="44.177917461309804" lon="3.728653094133569"><ele>431.3333333333333</ele><time>2026-04-03T08:22:18Z</time></trkpt><trkpt lat="44.17793614218031" lon="3.7287528053334498"><ele>431.5</ele><time>2026-04-03T08:22:19Z</time></trkpt><trkpt lat="44.1779844073418" lon="3.7288281161620977"><ele>431.66666666666663</ele><time>2026-04-03T08:22:20Z</time></trkpt><trkpt lat="44.178047779743025" lon="3.728848066145379"><ele>431.8333333333333</ele><time>2026-04-03T08:22:21Z</time></trkpt><trkpt lat="44.17812802943683" lon="3.7288266563164485"><ele>432.0</ele><time>2026-04-03T08:22:22Z</time></trkpt><trkpt lat="44.17823207859047" lon="3.7287745735347997"><ele>432.0</ele><time>2026-04-03T08:22:23Z</time></trkpt><trkpt lat="44.178355241730024" lon="3.728689714109871"><ele>432.0</ele><time>2026-04-03T08:22:24Z</time></trkpt><trkpt lat="44.17846684590988" lon="3.728580692649766"><ele>432.0</ele><time>2026-04-03T08:22:25Z</time></trkpt><trkpt lat="44.17855826842153" lon="3.7284802376297375"><ele>432.0</ele><time>2026-04-03T08:22:26Z</time></trkpt><trkpt lat="44.17864509842176" lon="3.7283967047331577"><ele>427.25</ele><time>2026-04-03T08:22:27Z</time></trkpt><trkpt lat="44.17875649056303" lon="3.7283506117908067"><ele>422.5</ele><time>2026-04-03T08:22:28Z</time></trkpt><trkpt lat="44.17888847294073" lon="3.728340820144451"><ele>417.75</ele><time>2026-04-03T08:22:29Z</time></trkpt><trkpt lat="44.17900016229406" lon="3.7282822187457714"><ele>413.0</ele><time>2026-04-03T08:22:30Z</time></trkpt><trkpt lat="44.179109103063084" lon="3.7281764445282133"><ele>411.5</ele><time>2026-04-03T08:22:31Z</time></trkpt><trkpt lat="44.17921962995026" lon="3.72809175167931"><ele>410.0</ele><time>2026-04-03T08:22:32Z</time></trkpt><trkpt lat="44.179331862091246" lon="3.728054326962467"><ele>408.5</ele><time>2026-04-03T08:22:33Z</time></trkpt><trkpt lat="44.179427996307865" lon="3.728092752842605"><ele>407.0</ele><time>2026-04-03T08:22:34Z</time></trkpt><trkpt lat="44.17952279876488" lon="3.7281735743534217"><ele>407.0</ele><time>2026-04-03T08:22:35Z</time></trkpt><trkpt lat="44.17961609480978" lon="3.7282815441710606"><ele>407.0</ele><time>2026-04-03T08:22:36Z</time></trkpt><trkpt lat="44.17971200733666" lon="3.728415347017095"><ele>407.0</ele><time>2026-04-03T08:22:37Z</time></trkpt><trkpt lat="44.17982207285886" lon="3.7285716879725985"><ele>407.0</ele><time>2026-04-03T08:22:38Z</time></trkpt><trkpt lat="44.17994342755215" lon="3.728716244099056"><ele>407.0</ele><time>2026-04-03T08:22:39Z</time></trkpt><trkpt lat="44.180074500455284" lon="3.728851300524647"><ele>407.0</ele><time>2026-04-03T08:22:40Z</time></trkpt><trkpt lat="44.180197996135384" lon="3.728978208191802"><ele>407.0</ele><time>2026-04-03T08:22:41Z</time></trkpt><trkpt lat="44.18031571404667" lon="3.729097182664351"><ele>407.0</ele><time>2026-04-03T08:22:42Z</time></trkpt><trkpt lat="44.18044108611602" lon="3.729204090513602"><ele>407.0</ele><time>2026-04-03T08:22:43Z</time></trkpt><trkpt lat="44.1805874469477" lon="3.729267968992053"><ele>407.0</ele><time>2026-04-03T08:22:44Z</time></trkpt><trkpt lat="44.18073415492229" lon="3.7293351804769777"><ele>406.5</ele><time>2026-04-03T08:22:45Z</time></trkpt><trkpt lat="44.18085770966035" lon="3.729430815515848"><ele>406.0</ele><time>2026-04-03T08:22:46Z</time></trkpt><trkpt lat="44.180972953905005" lon="3.7295232029895105"><ele>405.5</ele><time>2026-04-03T08:22:47Z</time></trkpt><trkpt lat="44.181087935915286" lon="3.729620299381237"><ele>405.0</ele><time>2026-04-03T08:22:48Z</time></trkpt><trkpt lat="44.18120817936623" lon="3.729699990301391"><ele>405.0</ele><time>2026-04-03T08:22:49Z</time></trkpt><trkpt lat="44.18134467016364" lon="3.7297449221498367"><ele>405.0</ele><time>2026-04-03T08:22:50Z</time></trkpt><trkpt lat="44.1814827371532" lon="3.7297663599957462"><ele>405.0</ele><time>2026-04-03T08:22:51Z</time></trkpt><trkpt lat="44.18159557937835" lon="3.729786992981383"><ele>405.0</ele><time>2026-04-03T08:22:52Z</time></trkpt><trkpt lat="44.181662303021426" lon="3.729802433846697"><ele>397.75</ele><time>2026-04-03T08:22:53Z</time></trkpt><trkpt lat="44.18173150238739" lon="3.729900103497059"><ele>390.5</ele><time>2026-04-03T08:22:55Z</time></trkpt><trkpt lat="44.181683276511706" lon="3.7300679140803137"><ele>383.25</ele><time>2026-04-03T08:22:57Z</time></trkpt><trkpt lat="44.181618947175664" lon="3.730173499728096"><ele>376.0</ele><time>2026-04-03T08:22:58Z</time></trkpt><trkpt lat="44.18152531129649" lon="3.730319929035553"><ele>385.0</ele><time>2026-04-03T08:22:59Z</time></trkpt><trkpt lat="44.181444143157314" lon="3.7304980325277097"><ele>394.0</ele><time>2026-04-03T08:23:00Z</time></trkpt><trkpt lat="44.181378942537634" lon="3.7306725198282944"><ele>403.0</ele><time>2026-04-03T08:23:01Z</time></trkpt><trkpt lat="44.1813455548322" lon="3.730856826182767"><ele>412.0</ele><time>2026-04-03T08:23:02Z</time></trkpt><trkpt lat="44.18132263504403" lon="3.731033435613913"><ele>411.75</ele><time>2026-04-03T08:23:03Z</time></trkpt><trkpt lat="44.181333915570484" lon="3.731197276290594"><ele>411.5</ele><time>2026-04-03T08:23:04Z</time></trkpt><trkpt lat="44.18137613821792" lon="3.7313854792151355"><ele>411.25</ele><time>2026-04-03T08:23:05Z</time></trkpt><trkpt lat="44.181406415001675" lon="3.7315805498879064"><ele>411.0</ele><time>2026-04-03T08:23:06Z</time></trkpt><trkpt lat="44.18143237479571" lon="3.7317635369844013"><ele>411.5</ele><time>2026-04-03T08:23:07Z</time></trkpt><trkpt lat="44.181503175561524" lon="3.7319277756929417"><ele>412.0</ele><time>2026-04-03T08:23:08Z</time></trkpt><trkpt lat="44.181603746399574" lon="3.7320546119224556"><ele>412.5</ele><time>2026-04-03T08:23:09Z</time></trkpt><trkpt lat="44.18170504038198" lon="3.7321786276802595"><ele>413.0</ele><time>2026-04-03T08:23:10Z</time></trkpt><trkpt lat="44.181752392037986" lon="3.7323517358054206"><ele>406.25</ele><time>2026-04-03T08:23:11Z</time></trkpt><trkpt lat="44.18183111018714" lon="3.7325312126515593"><ele>399.5</ele><time>2026-04-03T08:23:12Z</time></trkpt><trkpt lat="44.18190142399383" lon="3.732702030447522"><ele>392.75</ele><time>2026-04-03T08:23:13Z</time></trkpt><trkpt lat="44.18199833908426" lon="3.7328372525223785"><ele>386.0</ele><time>2026-04-03T08:23:14Z</time></trkpt><trkpt lat="44.18203179984725" lon="3.732984003926836"><ele>385.99999999999994</ele><time>2026-04-03T08:23:15Z</time></trkpt><trkpt lat="44.18204212683125" lon="3.733112270861768"><ele>386.0</ele><time>2026-04-03T08:23:16Z</time></trkpt><trkpt lat="44.18201021151306" lon="3.7332350558011207"><ele>386.0</ele><time>2026-04-03T08:23:17Z</time></trkpt><trkpt lat="44.182021775435906" lon="3.733340596519415"><ele>386.0</ele><time>2026-04-03T08:23:18Z</time></trkpt><trkpt lat="44.1820332375582" lon="3.7334356803574997"><ele>385.99999999999994</ele><time>2026-04-03T08:23:19Z</time></trkpt><trkpt lat="44.18211127428979" lon="3.7335376730830165"><ele>386.0</ele><time>2026-04-03T08:23:21Z</time></trkpt><trkpt lat="44.18220045127733" lon="3.733459623228792"><ele>385.99999999999994</ele><time>2026-04-03T08:23:25Z</time></trkpt><trkpt lat="44.18224693024981" lon="3.7333341869121193"><ele>386.0</ele><time>2026-04-03T08:23:27Z</time></trkpt><trkpt lat="44.18230627396865" lon="3.7332381574536306"><ele>386.0</ele><time>2026-04-03T08:23:29Z</time></trkpt><trkpt lat="44.18235237385237" lon="3.7331248898780203"><ele>386.0</ele><time>2026-04-03T08:23:31Z</time></trkpt><trkpt lat="44.18237914244114" lon="3.733043214278682"><ele>385.99999999999994</ele><time>2026-04-03T08:23:33Z</time></trkpt><trkpt lat="44.18241779555746" lon="3.73296967824196"><ele>386.0</ele><time>2026-04-03T08:23:35Z</time></trkpt><trkpt lat="44.182418496249674" lon="3.7328645139919705"><ele>386.00000000000006</ele><time>2026-04-03T08:23:38Z</time></trkpt><trkpt lat="44.18240123535154" lon="3.732962433360822"><ele>386.0</ele><time>2026-04-03T08:23:43Z</time></trkpt><trkpt lat="44.182370173889645" lon="3.7330682884609234"><ele>386.0</ele><time>2026-04-03T08:23:47Z</time></trkpt><trkpt lat="44.182333722696164" lon="3.7331669582867133"><ele>386.0</ele><time>2026-04-03T08:23:52Z</time></trkpt><trkpt lat="44.18228363976702" lon="3.733230865701155"><ele>386.0</ele><time>2026-04-03T08:24:02Z</time></trkpt><trkpt lat="44.18226249248718" lon="3.733317583055893"><ele>386.00000000000006</ele><time>2026-04-03T08:24:04Z</time></trkpt><trkpt lat="44.182221659122334" lon="3.733387620116849"><ele>386.0</ele><time>2026-04-03T08:24:06Z</time></trkpt><trkpt lat="44.182149033807846" lon="3.733475705892226"><ele>385.6</ele><time>2026-04-03T08:24:08Z</time></trkpt><trkpt lat="44.1821232229796" lon="3.7335909210831146"><ele>385.20000000000005</ele><time>2026-04-03T08:24:10Z</time></trkpt><trkpt lat="44.18216162399197" lon="3.7337227602932384"><ele>384.79999999999995</ele><time>2026-04-03T08:24:12Z</time></trkpt><trkpt lat="44.18219497924704" lon="3.73381804500916"><ele>384.4</ele><time>2026-04-03T08:24:13Z</time></trkpt><trkpt lat="44.18221172345977" lon="3.7339356088554694"><ele>384.0</ele><time>2026-04-03T08:24:14Z</time></trkpt><trkpt lat="44.18221150585185" lon="3.7340751974653195"><ele>384.0</ele><time>2026-04-03T08:24:15Z</time></trkpt><trkpt lat="44.182174768357434" lon="3.7341804858591483"><ele>384.0</ele><time>2026-04-03T08:24:16Z</time></trkpt><trkpt lat="44.182096421257775" lon="3.7342829931452504"><ele>384.0</ele><time>2026-04-03T08:24:17Z</time></trkpt><trkpt lat="44.18203813731358" lon="3.7344193579618903"><ele>384.0</ele><time>2026-04-03T08:24:18Z</time></trkpt><trkpt lat="44.18200242416525" lon="3.7345341043370537"><ele>384.0</ele><time>2026-04-03T08:24:19Z</time></trkpt><trkpt lat="44.18199809351655" lon="3.7346543520926163"><ele>383.4</ele><time>2026-04-03T08:24:20Z</time></trkpt><trkpt lat="44.18203815536776" lon="3.7347543369856107"><ele>382.79999999999995</ele><time>2026-04-03T08:24:21Z</time></trkpt><trkpt lat="44.1820771264591" lon="3.734839538723739"><ele>382.20000000000005</ele><time>2026-04-03T08:24:22Z</time></trkpt><trkpt lat="44.18213260082945" lon="3.7349713330804226"><ele>381.6</ele><time>2026-04-03T08:24:23Z</time></trkpt><trkpt lat="44.18218361955035" lon="3.7351428561679616"><ele>381.0</ele><time>2026-04-03T08:24:24Z</time></trkpt><trkpt lat="44.182229082046554" lon="3.7353179079499457"><ele>383.75</ele><time>2026-04-03T08:24:25Z</time></trkpt><trkpt lat="44.18226369233797" lon="3.7355032297587036"><ele>386.5</ele><time>2026-04-03T08:24:26Z</time></trkpt><trkpt lat="44.18231437997906" lon="3.7356953563639825"><ele>389.25</ele><time>2026-04-03T08:24:27Z</time></trkpt><trkpt lat="44.18238116701375" lon="3.7358459514374296"><ele>392.0</ele><time>2026-04-03T08:24:28Z</time></trkpt><trkpt lat="44.182497079415086" lon="3.7359014474851"><ele>386.0</ele><time>2026-04-03T08:24:29Z</time></trkpt><trkpt lat="44.18256326760056" lon="3.736004407568276"><ele>380.0</ele><time>2026-04-03T08:24:30Z</time></trkpt><trkpt lat="44.18264224954936" lon="3.736084623384908"><ele>374.0</ele><time>2026-04-03T08:24:31Z</time></trkpt><trkpt lat="44.182680600549254" lon="3.736257491100114"><ele>368.0</ele><time>2026-04-03T08:24:32Z</time></trkpt><trkpt lat="44.18274434072234" lon="3.7364727241018296"><ele>368.0</ele><time>2026-04-03T08:24:33Z</time></trkpt><trkpt lat="44.182804152063056" lon="3.7366984380840877"><ele>368.0</ele><time>2026-04-03T08:24:34Z</time></trkpt><trkpt lat="44.18288496488807" lon="3.736894410944308"><ele>368.0</ele><time>2026-04-03T08:24:35Z</time></trkpt><trkpt lat="44.182947844349485" lon="3.7370906470732055"><ele>368.5</ele><time>2026-04-03T08:24:36Z</time></trkpt><trkpt lat="44.18302111564469" lon="3.737249714722329"><ele>369.0</ele><time>2026-04-03T08:24:37Z</time></trkpt><trkpt lat="44.18310351354614" lon="3.737385941286485"><ele>369.5</ele><time>2026-04-03T08:24:38Z</time></trkpt><trkpt lat="44.183194341495174" lon="3.73748097525259"><ele>370.0</ele><time>2026-04-03T08:24:39Z</time></trkpt><trkpt lat="44.18323958329499" lon="3.737601748504006"><ele>367.2</ele><time>2026-04-03T08:24:40Z</time></trkpt><trkpt lat="44.18326974959066" lon="3.737702422128401"><ele>364.4</ele><time>2026-04-03T08:24:41Z</time></trkpt><trkpt lat="44.183255586973445" lon="3.7378638298961895"><ele>361.6</ele><time>2026-04-03T08:24:43Z</time></trkpt><trkpt lat="44.1832041859205" lon="3.7379355120684883"><ele>358.8</ele><time>2026-04-03T08:24:44Z</time></trkpt><trkpt lat="44.183141342297965" lon="3.7380417081322865"><ele>356.0</ele><time>2026-04-03T08:24:45Z</time></trkpt><trkpt lat="44.183068505324734" lon="3.7381517425667856"><ele>356.0</ele><time>2026-04-03T08:24:46Z</time></trkpt><trkpt lat="44.18299420164965" lon="3.7382369797905253"><ele>356.0</ele><time>2026-04-03T08:24:47Z</time></trkpt><trkpt lat="44.18290739217365" lon="3.738286650259476"><ele>356.0</ele><time>2026-04-03T08:24:48Z</time></trkpt><trkpt lat="44.182818363307966" lon="3.738325323325797"><ele>356.0</ele><time>2026-04-03T08:24:49Z</time></trkpt><trkpt lat="44.182726107300454" lon="3.738372567938226"><ele>356.0</ele><time>2026-04-03T08:24:50Z</time></trkpt><trkpt lat="44.18262764765508" lon="3.7384254965358643"><ele>356.0</ele><time>2026-04-03T08:24:51Z</time></trkpt><trkpt lat="44.18253457436303" lon="3.738480527694026"><ele>356.0</ele><time>2026-04-03T08:24:52Z</time></trkpt><trkpt lat="44.18242597259282" lon="3.73854697669313"><ele>356.0</ele><time>2026-04-03T08:24:53Z</time></trkpt><trkpt lat="44.18231934797683" lon="3.738617920217362"><ele>356.0</ele><time>2026-04-03T08:24:54Z</time></trkpt><trkpt lat="44.18219802355037" lon="3.7387073807958284"><ele>356.25</ele><time>2026-04-03T08:24:55Z</time></trkpt><trkpt lat="44.182072606673884" lon="3.7387865106046987"><ele>356.5</ele><time>2026-04-03T08:24:56Z</time></trkpt><trkpt lat="44.18198722427699" lon="3.7389238409992624"><ele>356.75</ele><time>2026-04-03T08:24:57Z</time></trkpt><trkpt lat="44.18188317621449" lon="3.7390376922452484"><ele>357.0</ele><time>2026-04-03T08:24:58Z</time></trkpt><trkpt lat="44.181789565447325" lon="3.739154852366923"><ele>357.0</ele><time>2026-04-03T08:24:59Z</time></trkpt><trkpt lat="44.18169402249225" lon="3.7392810494674955"><ele>357.0</ele><time>2026-04-03T08:25:00Z</time></trkpt><trkpt lat="44.18158746793255" lon="3.73940876295203"><ele>357.0</ele><time>2026-04-03T08:25:01Z</time></trkpt><trkpt lat="44.1814758674421" lon="3.7395087399559968"><ele>357.0</ele><time>2026-04-03T08:25:02Z</time></trkpt><trkpt lat="44.181368698173074" lon="3.739622502277436"><ele>356.5</ele><time>2026-04-03T08:25:03Z</time></trkpt><trkpt lat="44.18127246583301" lon="3.7397494858817315"><ele>356.0</ele><time>2026-04-03T08:25:04Z</time></trkpt><trkpt lat="44.18117698114272" lon="3.7398592034001408"><ele>355.5</ele><time>2026-04-03T08:25:05Z</time></trkpt><trkpt lat="44.181085445259335" lon="3.7399609500505204"><ele>355.0</ele><time>2026-04-03T08:25:06Z</time></trkpt><trkpt lat="44.18099661124103" lon="3.7400350370474307"><ele>355.0</ele><time>2026-04-03T08:25:07Z</time></trkpt><trkpt lat="44.180909562658854" lon="3.7400773456857666"><ele>355.0</ele><time>2026-04-03T08:25:08Z</time></trkpt><trkpt lat="44.180813982830166" lon="3.740103884289186"><ele>355.0</ele><time>2026-04-03T08:25:09Z</time></trkpt><trkpt lat="44.18072394587859" lon="3.7401707375525235"><ele>355.0</ele><time>2026-04-03T08:25:10Z</time></trkpt><trkpt lat="44.18066773814324" lon="3.740241705399945"><ele>355.0</ele><time>2026-04-03T08:25:11Z</time></trkpt><trkpt lat="44.18060806040195" lon="3.7403291638211873"><ele>353.0</ele><time>2026-04-03T08:25:13Z</time></trkpt><trkpt lat="44.180508347209866" lon="3.7403615636092775"><ele>351.0</ele><time>2026-04-03T08:25:15Z</time></trkpt><trkpt lat="44.180390186967124" lon="3.740422238543541"><ele>349.0</ele><time>2026-04-03T08:25:17Z</time></trkpt><trkpt lat="44.18025841435676" lon="3.7404085179832647"><ele>347.0</ele><time>2026-04-03T08:25:19Z</time></trkpt><trkpt lat="44.18018394686672" lon="3.740421254766643"><ele>345.0</ele><time>2026-04-03T08:25:20Z</time></trkpt><trkpt lat="44.18011981884267" lon="3.7404764928492837"><ele>345.0</ele><time>2026-04-03T08:25:21Z</time></trkpt><trkpt lat="44.18010031368239" lon="3.7405924027518997"><ele>345.0</ele><time>2026-04-03T08:25:22Z</time></trkpt><trkpt lat="44.18009106578764" lon="3.7406834956802673"><ele>345.0</ele><time>2026-04-03T08:25:23Z</time></trkpt><trkpt lat="44.18006616673783" lon="3.7407873588928138"><ele>345.0</ele><time>2026-04-03T08:25:25Z</time></trkpt><trkpt lat="44.17995322627655" lon="3.7407953383090815"><ele>345.0</ele><time>2026-04-03T08:25:27Z</time></trkpt><trkpt lat="44.17984923140174" lon="3.7408331118416345"><ele>346.0</ele><time>2026-04-03T08:25:28Z</time></trkpt><trkpt lat="44.17971663245756" lon="3.7408983250777186"><ele>347.0</ele><time>2026-04-03T08:25:29Z</time></trkpt><trkpt lat="44.17960780523678" lon="3.7409931489587973"><ele>348.0</ele><time>2026-04-03T08:25:30Z</time></trkpt><trkpt lat="44.17947781315026" lon="3.74109067894133"><ele>349.0</ele><time>2026-04-03T08:25:31Z</time></trkpt><trkpt lat="44.17934402553102" lon="3.741194675047159"><ele>352.0</ele><time>2026-04-03T08:25:32Z</time></trkpt><trkpt lat="44.17920857800644" lon="3.7413068271302294"><ele>355.0</ele><time>2026-04-03T08:25:33Z</time></trkpt><trkpt lat="44.17907712035208" lon="3.7414119656603555"><ele>358.0</ele><time>2026-04-03T08:25:34Z</time></trkpt><trkpt lat="44.17894099161803" lon="3.7414623130209024"><ele>358.0</ele><time>2026-04-03T08:25:35Z</time></trkpt><trkpt lat="44.178828716061425" lon="3.7415558972311196"><ele>358.0</ele><time>2026-04-03T08:25:36Z</time></trkpt><trkpt lat="44.178738390625426" lon="3.7416607327855815"><ele>358.0</ele><time>2026-04-03T08:25:37Z</time></trkpt><trkpt lat="44.17869441345238" lon="3.7418223350843327"><ele>358.0</ele><time>2026-04-03T08:25:38Z</time></trkpt><trkpt lat="44.17863785777734" lon="3.742040763330599"><ele>354.3333333333333</ele><time>2026-04-03T08:25:39Z</time></trkpt><trkpt lat="44.178553487268154" lon="3.742281256527142"><ele>350.6666666666667</ele><time>2026-04-03T08:25:40Z</time></trkpt><trkpt lat="44.17843343016225" lon="3.742475421995536"><ele>347.0</ele><time>2026-04-03T08:25:41Z</time></trkpt><trkpt lat="44.17834845338369" lon="3.7426883622375895"><ele>344.33333333333337</ele><time>2026-04-03T08:25:42Z</time></trkpt><trkpt lat="44.17827171153819" lon="3.74289382366888"><ele>341.6666666666667</ele><time>2026-04-03T08:25:43Z</time></trkpt><trkpt lat="44.17822639006986" lon="3.743126713177388"><ele>339.0</ele><time>2026-04-03T08:25:44Z</time></trkpt><trkpt lat="44.178207277024924" lon="3.7433679047047823"><ele>338.6666666666667</ele><time>2026-04-03T08:25:45Z</time></trkpt><trkpt lat="44.17819805943966" lon="3.7436095407731154"><ele>338.33333333333337</ele><time>2026-04-03T08:25:46Z</time></trkpt><trkpt lat="44.17818542544063" lon="3.743846962370847"><ele>338.0</ele><time>2026-04-03T08:25:47Z</time></trkpt><trkpt lat="44.1781814348572" lon="3.7440741445106887"><ele>348.0</ele><time>2026-04-03T08:25:48Z</time></trkpt><trkpt lat="44.178143270933084" lon="3.7442929269527827"><ele>358.0</ele><time>2026-04-03T08:25:49Z</time></trkpt><trkpt lat="44.17810338931643" lon="3.7445331641009756"><ele>368.0</ele><time>2026-04-03T08:25:50Z</time></trkpt><trkpt lat="44.178089212246526" lon="3.744766741174795"><ele>368.0</ele><time>2026-04-03T08:25:51Z</time></trkpt><trkpt lat="44.17808152517056" lon="3.7450067891832446"><ele>368.0</ele><time>2026-04-03T08:25:52Z</time></trkpt><trkpt lat="44.17807638981133" lon="3.745232455883736"><ele>368.0</ele><time>2026-04-03T08:25:53Z</time></trkpt><trkpt lat="44.1780659517108" lon="3.7454535843189283"><ele>368.0</ele><time>2026-04-03T08:25:54Z</time></trkpt><trkpt lat="44.178013253647016" lon="3.7456612514649907"><ele>368.0</ele><time>2026-04-03T08:25:55Z</time></trkpt><trkpt lat="44.17795979525811" lon="3.7458479549272776"><ele>368.0</ele><time>2026-04-03T08:25:56Z</time></trkpt><trkpt lat="44.17790734256954" lon="3.746015004417767"><ele>368.0</ele><time>2026-04-03T08:25:57Z</time></trkpt><trkpt lat="44.17787671430453" lon="3.7461584729545834"><ele>365.79999999999995</ele><time>2026-04-03T08:25:58Z</time></trkpt><trkpt lat="44.17783762990789" lon="3.746267282868861"><ele>363.6</ele><time>2026-04-03T08:25:59Z</time></trkpt><trkpt lat="44.177797931323845" lon="3.746338857372701"><ele>361.4</ele><time>2026-04-03T08:26:00Z</time></trkpt><trkpt lat="44.17793351253257" lon="3.746501764472789"><ele>359.20000000000005</ele><time>2026-04-03T08:26:02Z</time></trkpt><trkpt lat="44.177996825969565" lon="3.746557683263332"><ele>357.0</ele><time>2026-04-03T08:26:03Z</time></trkpt><trkpt lat="44.178058489944746" lon="3.746636202415303"><ele>357.0</ele><time>2026-04-03T08:26:04Z</time></trkpt><trkpt lat="44.17812213961328" lon="3.7467012905648116"><ele>357.0</ele><time>2026-04-03T08:26:05Z</time></trkpt><trkpt lat="44.17816361733093" lon="3.7467865820647885"><ele>357.0</ele><time>2026-04-03T08:26:06Z</time></trkpt><trkpt lat="44.17821262604276" lon="3.7468519709412336"><ele>357.0</ele><time>2026-04-03T08:26:07Z</time></trkpt><trkpt lat="44.17826012429939" lon="3.746915336913942"><ele>357.0</ele><time>2026-04-03T08:26:08Z</time></trkpt><trkpt lat="44.17834597511417" lon="3.747001025535959"><ele>357.0</ele><time>2026-04-03T08:26:10Z</time></trkpt><trkpt lat="44.17839431443651" lon="3.747118507424883"><ele>353.40000000000003</ele><time>2026-04-03T08:26:12Z</time></trkpt><trkpt lat="44.17847115744585" lon="3.747212404526729"><ele>349.8</ele><time>2026-04-03T08:26:14Z</time></trkpt><trkpt lat="44.178540444011425" lon="3.747311968873338"><ele>346.2</ele><time>2026-04-03T08:26:16Z</time></trkpt><trkpt lat="44.178571750255564" lon="3.747435208874241"><ele>342.6</ele><time>2026-04-03T08:26:18Z</time></trkpt><trkpt lat="44.178512958762255" lon="3.7475825112248518"><ele>339.0</ele><time>2026-04-03T08:26:20Z</time></trkpt><trkpt lat="44.1784687657977" lon="3.7476700705335935"><ele>341.2</ele><time>2026-04-03T08:26:21Z</time></trkpt><trkpt lat="44.17842602600304" lon="3.7477738959064"><ele>343.4</ele><time>2026-04-03T08:26:22Z</time></trkpt><trkpt lat="44.17838380832151" lon="3.7478959937801886"><ele>345.6</ele><time>2026-04-03T08:26:23Z</time></trkpt><trkpt lat="44.178336720850574" lon="3.7480254379888924"><ele>347.8</ele><time>2026-04-03T08:26:24Z</time></trkpt><trkpt lat="44.17828494573629" lon="3.748157949517526"><ele>350.0</ele><time>2026-04-03T08:26:25Z</time></trkpt><trkpt lat="44.1782309088349" lon="3.7482965543601208"><ele>346.6</ele><time>2026-04-03T08:26:26Z</time></trkpt><trkpt lat="44.178175801037945" lon="3.7484332741994035"><ele>343.2</ele><time>2026-04-03T08:26:27Z</time></trkpt><trkpt lat="44.17812054098398" lon="3.7485676099559657"><ele>339.79999999999995</ele><time>2026-04-03T08:26:28Z</time></trkpt><trkpt lat="44.17806873499523" lon="3.7487052853001037"><ele>336.4</ele><time>2026-04-03T08:26:29Z</time></trkpt><trkpt lat="44.17801306183471" lon="3.7488405794596704"><ele>333.0</ele><time>2026-04-03T08:26:30Z</time></trkpt><trkpt lat="44.17792875075917" lon="3.748939871096482"><ele>332.0</ele><time>2026-04-03T08:26:31Z</time></trkpt><trkpt lat="44.17784253047932" lon="3.7490309319475172"><ele>331.0</ele><time>2026-04-03T08:26:32Z</time></trkpt><trkpt lat="44.17774624039293" lon="3.7491156900871023"><ele>330.0</ele><time>2026-04-03T08:26:33Z</time></trkpt><trkpt lat="44.17763799093155" lon="3.749195542018959"><ele>329.0</ele><time>2026-04-03T08:26:34Z</time></trkpt><trkpt lat="44.177520126933196" lon="3.7492977165716606"><ele>329.25</ele><time>2026-04-03T08:26:35Z</time></trkpt><trkpt lat="44.177398549818825" lon="3.749384682930078"><ele>329.5</ele><time>2026-04-03T08:26:36Z</time></trkpt><trkpt lat="44.17729096372969" lon="3.749473133109128"><ele>329.75</ele><time>2026-04-03T08:26:37Z</time></trkpt><trkpt lat="44.17719420102259" lon="3.749542610361804"><ele>330.0</ele><time>2026-04-03T08:26:38Z</time></trkpt><trkpt lat="44.177104196839316" lon="3.7496084095047006"><ele>330.0</ele><time>2026-04-03T08:26:39Z</time></trkpt><trkpt lat="44.17701758262325" lon="3.749676088599507"><ele>330.0</ele><time>2026-04-03T08:26:40Z</time></trkpt><trkpt lat="44.17693063642194" lon="3.7497663060453297"><ele>330.0</ele><time>2026-04-03T08:26:41Z</time></trkpt><trkpt lat="44.17684724281618" lon="3.7498673638023883"><ele>330.0</ele><time>2026-04-03T08:26:42Z</time></trkpt><trkpt lat="44.17678158012801" lon="3.749955551633318"><ele>330.0</ele><time>2026-04-03T08:26:43Z</time></trkpt><trkpt lat="44.176713257120056" lon="3.7500409837000257"><ele>330.0</ele><time>2026-04-03T08:26:44Z</time></trkpt><trkpt lat="44.176622392961896" lon="3.750153160377737"><ele>330.0</ele><time>2026-04-03T08:26:45Z</time></trkpt><trkpt lat="44.1765173391845" lon="3.7503003615765502"><ele>330.0</ele><time>2026-04-03T08:26:46Z</time></trkpt><trkpt lat="44.17641475314051" lon="3.7504477171224067"><ele>330.0</ele><time>2026-04-03T08:26:47Z</time></trkpt><trkpt lat="44.176315588799746" lon="3.7505983455419396"><ele>330.0</ele><time>2026-04-03T08:26:48Z</time></trkpt><trkpt lat="44.17620695062674" lon="3.7507729220743116"><ele>330.0</ele><time>2026-04-03T08:26:49Z</time></trkpt><trkpt lat="44.17608698658489" lon="3.7509677442440563"><ele>330.0</ele><time>2026-04-03T08:26:50Z</time></trkpt><trkpt lat="44.17597669123975" lon="3.7511522578163925"><ele>329.6666666666667</ele><time>2026-04-03T08:26:51Z</time></trkpt><trkpt lat="44.175861938147214" lon="3.751349203826994"><ele>329.33333333333337</ele><time>2026-04-03T08:26:52Z</time></trkpt><trkpt lat="44.175738339559565" lon="3.7515606542705298"><ele>329.0</ele><time>2026-04-03T08:26:53Z</time></trkpt><trkpt lat="44.17562389755549" lon="3.751766683739405"><ele>328.33333333333337</ele><time>2026-04-03T08:26:54Z</time></trkpt><trkpt lat="44.175526397656085" lon="3.751965193276054"><ele>327.6666666666667</ele><time>2026-04-03T08:26:55Z</time></trkpt><trkpt lat="44.17547586116001" lon="3.7521702093762976"><ele>327.0</ele><time>2026-04-03T08:26:56Z</time></trkpt><trkpt lat="44.17546575258171" lon="3.752395471468612"><ele>327.0</ele><time>2026-04-03T08:26:57Z</time></trkpt><trkpt lat="44.17548530202855" lon="3.7526433809312794"><ele>327.0</ele><time>2026-04-03T08:26:58Z</time></trkpt><trkpt lat="44.17551458121754" lon="3.7529143550870927"><ele>327.0</ele><time>2026-04-03T08:26:59Z</time></trkpt><trkpt lat="44.17553119784068" lon="3.753188107166123"><ele>326.6666666666667</ele><time>2026-04-03T08:27:00Z</time></trkpt><trkpt lat="44.1755379428758" lon="3.7534797496379237"><ele>326.33333333333337</ele><time>2026-04-03T08:27:01Z</time></trkpt><trkpt lat="44.17549606350861" lon="3.7537614076754187"><ele>326.0</ele><time>2026-04-03T08:27:02Z</time></trkpt><trkpt lat="44.17545686494316" lon="3.7540344879921954"><ele>326.0</ele><time>2026-04-03T08:27:03Z</time></trkpt><trkpt lat="44.17539314107851" lon="3.754297929403702"><ele>326.0</ele><time>2026-04-03T08:27:04Z</time></trkpt><trkpt lat="44.17533247767825" lon="3.7545854440863455"><ele>326.0</ele><time>2026-04-03T08:27:05Z</time></trkpt><trkpt lat="44.175249695888155" lon="3.754886659837823"><ele>326.6666666666667</ele><time>2026-04-03T08:27:06Z</time></trkpt><trkpt lat="44.17517047561688" lon="3.755180538207064"><ele>327.3333333333333</ele><time>2026-04-03T08:27:07Z</time></trkpt><trkpt lat="44.17507735404972" lon="3.755453739826456"><ele>328.0</ele><time>2026-04-03T08:27:08Z</time></trkpt><trkpt lat="44.17501564236515" lon="3.7557234643573336"><ele>329.3333333333333</ele><time>2026-04-03T08:27:09Z</time></trkpt><trkpt lat="44.174931230256654" lon="3.755966194446924"><ele>330.6666666666667</ele><time>2026-04-03T08:27:10Z</time></trkpt><trkpt lat="44.174812706420965" lon="3.7561493137232"><ele>332.0</ele><time>2026-04-03T08:27:11Z</time></trkpt><trkpt lat="44.174687070896276" lon="3.7563125647190483"><ele>332.0</ele><time>2026-04-03T08:27:12Z</time></trkpt><trkpt lat="44.17455400177216" lon="3.7564682038587454"><ele>332.0</ele><time>2026-04-03T08:27:13Z</time></trkpt><trkpt lat="44.17442389462489" lon="3.7566217800645205"><ele>332.0</ele><time>2026-04-03T08:27:14Z</time></trkpt><trkpt lat="44.17426933369316" lon="3.7567363670355625"><ele>332.0</ele><time>2026-04-03T08:27:15Z</time></trkpt><trkpt lat="44.17410100293069" lon="3.7568020945773744"><ele>332.0</ele><time>2026-04-03T08:27:16Z</time></trkpt><trkpt lat="44.1739294808294" lon="3.7568266039035683"><ele>332.0</ele><time>2026-04-03T08:27:17Z</time></trkpt><trkpt lat="44.173753165137576" lon="3.7568468116864904"><ele>338.33333333333337</ele><time>2026-04-03T08:27:18Z</time></trkpt><trkpt lat="44.17359699171376" lon="3.7569256218165368"><ele>344.6666666666667</ele><time>2026-04-03T08:27:19Z</time></trkpt><trkpt lat="44.17344158712717" lon="3.7569746074756294"><ele>351.0</ele><time>2026-04-03T08:27:20Z</time></trkpt><trkpt lat="44.173302041030624" lon="3.7569174649848773"><ele>345.3333333333333</ele><time>2026-04-03T08:27:21Z</time></trkpt><trkpt lat="44.17312505010106" lon="3.7568576618148093"><ele>339.66666666666663</ele><time>2026-04-03T08:27:22Z</time></trkpt><trkpt lat="44.17295150348079" lon="3.75680994527221"><ele>334.0</ele><time>2026-04-03T08:27:23Z</time></trkpt><trkpt lat="44.172817713031876" lon="3.756774728889322"><ele>334.0</ele><time>2026-04-03T08:27:24Z</time></trkpt><trkpt lat="44.1727138766847" lon="3.7567500425859115"><ele>334.0</ele><time>2026-04-03T08:27:25Z</time></trkpt><trkpt lat="44.17257248047959" lon="3.756716887635117"><ele>334.0</ele><time>2026-04-03T08:27:26Z</time></trkpt><trkpt lat="44.17242490759031" lon="3.756675263733913"><ele>334.0</ele><time>2026-04-03T08:27:27Z</time></trkpt><trkpt lat="44.17226269705779" lon="3.7566515011177093"><ele>335.5</ele><time>2026-04-03T08:27:28Z</time></trkpt><trkpt lat="44.17212063898986" lon="3.7566636805802056"><ele>337.0</ele><time>2026-04-03T08:27:29Z</time></trkpt><trkpt lat="44.17199781985929" lon="3.7567376236192005"><ele>338.5</ele><time>2026-04-03T08:27:30Z</time></trkpt><trkpt lat="44.171882712316204" lon="3.7568825426446604"><ele>340.0</ele><time>2026-04-03T08:27:31Z</time></trkpt><trkpt lat="44.171784772312805" lon="3.757094080513871"><ele>340.0</ele><time>2026-04-03T08:27:32Z</time></trkpt><trkpt lat="44.17168715672495" lon="3.7573349310895994"><ele>340.0</ele><time>2026-04-03T08:27:33Z</time></trkpt><trkpt lat="44.17157301600063" lon="3.757564047607209"><ele>340.0</ele><time>2026-04-03T08:27:34Z</time></trkpt><trkpt lat="44.171447925859866" lon="3.757768503211229"><ele>334.66666666666663</ele><time>2026-04-03T08:27:35Z</time></trkpt><trkpt lat="44.17130781546521" lon="3.7579341106073385"><ele>329.3333333333333</ele><time>2026-04-03T08:27:36Z</time></trkpt><trkpt lat="44.17116367945262" lon="3.758064645227666"><ele>324.0</ele><time>2026-04-03T08:27:37Z</time></trkpt><trkpt lat="44.17103470370079" lon="3.7581731581227684"><ele>324.0</ele><time>2026-04-03T08:27:38Z</time></trkpt><trkpt lat="44.17093561519715" lon="3.7583367178708693"><ele>324.0</ele><time>2026-04-03T08:27:39Z</time></trkpt><trkpt lat="44.17086121088623" lon="3.7585547947208937"><ele>324.0</ele><time>2026-04-03T08:27:40Z</time></trkpt><trkpt lat="44.170814060075806" lon="3.7587624080520334"><ele>326.3333333333333</ele><time>2026-04-03T08:27:41Z</time></trkpt><trkpt lat="44.170808235938644" lon="3.758997029296183"><ele>328.66666666666663</ele><time>2026-04-03T08:27:42Z</time></trkpt><trkpt lat="44.170779556994454" lon="3.7592477904963904"><ele>331.0</ele><time>2026-04-03T08:27:43Z</time></trkpt><trkpt lat="44.1707060512816" lon="3.7594657917137266"><ele>328.5</ele><time>2026-04-03T08:27:44Z</time></trkpt><trkpt lat="44.17061030880998" lon="3.75964334980238"><ele>326.0</ele><time>2026-04-03T08:27:45Z</time></trkpt><trkpt lat="44.17054413936916" lon="3.7598303020992603"><ele>323.5</ele><time>2026-04-03T08:27:46Z</time></trkpt><trkpt lat="44.17050477247515" lon="3.7600161329663617"><ele>321.0</ele><time>2026-04-03T08:27:47Z</time></trkpt><trkpt lat="44.170551403778994" lon="3.7602352284774034"><ele>320.0</ele><time>2026-04-03T08:27:48Z</time></trkpt><trkpt lat="44.170627621344124" lon="3.7604935858990873"><ele>319.0</ele><time>2026-04-03T08:27:49Z</time></trkpt><trkpt lat="44.17068447356845" lon="3.760768411950178"><ele>318.0</ele><time>2026-04-03T08:27:50Z</time></trkpt><trkpt lat="44.17071457514774" lon="3.761056366506917"><ele>320.0</ele><time>2026-04-03T08:27:51Z</time></trkpt><trkpt lat="44.17074038049888" lon="3.7613240137338115"><ele>322.0</ele><time>2026-04-03T08:27:52Z</time></trkpt><trkpt lat="44.170760225754094" lon="3.7615765241219385"><ele>324.0</ele><time>2026-04-03T08:27:53Z</time></trkpt><trkpt lat="44.1707827548294" lon="3.761816281291595"><ele>322.6666666666667</ele><time>2026-04-03T08:27:54Z</time></trkpt><trkpt lat="44.17082435154037" lon="3.7620545289149363"><ele>321.33333333333337</ele><time>2026-04-03T08:27:55Z</time></trkpt><trkpt lat="44.17089827965333" lon="3.7622687156410017"><ele>320.0</ele><time>2026-04-03T08:27:56Z</time></trkpt><trkpt lat="44.17097528347395" lon="3.7624631024041806"><ele>320.0</ele><time>2026-04-03T08:27:57Z</time></trkpt><trkpt lat="44.17103796771458" lon="3.762645904676385"><ele>320.0</ele><time>2026-04-03T08:27:58Z</time></trkpt><trkpt lat="44.17107499929809" lon="3.7628244560556876"><ele>320.0</ele><time>2026-04-03T08:27:59Z</time></trkpt><trkpt lat="44.171066752928304" lon="3.762993756553994"><ele>320.0</ele><time>2026-04-03T08:28:00Z</time></trkpt><trkpt lat="44.170979030685245" lon="3.763109044218319"><ele>319.5</ele><time>2026-04-03T08:28:01Z</time></trkpt><trkpt lat="44.17088591436629" lon="3.7631874391348257"><ele>319.0</ele><time>2026-04-03T08:28:02Z</time></trkpt><trkpt lat="44.17073146274546" lon="3.7631664674833636"><ele>318.5</ele><time>2026-04-03T08:28:03Z</time></trkpt><trkpt lat="44.17058241000197" lon="3.763155428916734"><ele>318.0</ele><time>2026-04-03T08:28:04Z</time></trkpt><trkpt lat="44.170440764144935" lon="3.763166953903512"><ele>319.0</ele><time>2026-04-03T08:28:05Z</time></trkpt><trkpt lat="44.17029598210172" lon="3.763162516465436"><ele>320.0</ele><time>2026-04-03T08:28:06Z</time></trkpt><trkpt lat="44.17018040410996" lon="3.763152347374666"><ele>321.0</ele><time>2026-04-03T08:28:07Z</time></trkpt><trkpt lat="44.17008724751446" lon="3.763159146581235"><ele>322.0</ele><time>2026-04-03T08:28:08Z</time></trkpt><trkpt lat="44.17000344734886" lon="3.7631759824960227"><ele>323.0</ele><time>2026-04-03T08:28:09Z</time></trkpt><trkpt lat="44.16996623889463" lon="3.7633114785363544"><ele>323.0</ele><time>2026-04-03T08:28:10Z</time></trkpt><trkpt lat="44.16995914768636" lon="3.763437351578633"><ele>323.0</ele><time>2026-04-03T08:28:11Z</time></trkpt><trkpt lat="44.169944535534036" lon="3.7635975325317097"><ele>323.0</ele><time>2026-04-03T08:28:12Z</time></trkpt><trkpt lat="44.169945456409636" lon="3.763778043586407"><ele>323.0</ele><time>2026-04-03T08:28:13Z</time></trkpt><trkpt lat="44.16994668465619" lon="3.7639346468274546"><ele>323.0</ele><time>2026-04-03T08:28:14Z</time></trkpt><trkpt lat="44.16995790638555" lon="3.7640956808350605"><ele>321.5</ele><time>2026-04-03T08:28:15Z</time></trkpt><trkpt lat="44.16992285627811" lon="3.7642555345999793"><ele>320.0</ele><time>2026-04-03T08:28:16Z</time></trkpt><trkpt lat="44.169839553450394" lon="3.7643501135863273"><ele>318.5</ele><time>2026-04-03T08:28:17Z</time></trkpt><trkpt lat="44.16972838837134" lon="3.764338415351146"><ele>317.0</ele><time>2026-04-03T08:28:18Z</time></trkpt><trkpt lat="44.16958255494896" lon="3.764325605685635"><ele>316.6666666666667</ele><time>2026-04-03T08:28:19Z</time></trkpt><trkpt lat="44.16940260077928" lon="3.76436959910947"><ele>316.3333333333333</ele><time>2026-04-03T08:28:20Z</time></trkpt><trkpt lat="44.16924140159438" lon="3.7643890588997397"><ele>316.0</ele><time>2026-04-03T08:28:21Z</time></trkpt><trkpt lat="44.169072525578706" lon="3.764398090192949"><ele>314.66666666666663</ele><time>2026-04-03T08:28:22Z</time></trkpt><trkpt lat="44.16888047167537" lon="3.7644058230273973"><ele>313.3333333333333</ele><time>2026-04-03T08:28:23Z</time></trkpt><trkpt lat="44.16868680762393" lon="3.7644058488348833"><ele>312.0</ele><time>2026-04-03T08:28:24Z</time></trkpt><trkpt lat="44.16851839105662" lon="3.7644110940938496"><ele>312.0</ele><time>2026-04-03T08:28:25Z</time></trkpt><trkpt lat="44.16836415096135" lon="3.764368634361234"><ele>312.0</ele><time>2026-04-03T08:28:26Z</time></trkpt><trkpt lat="44.168213533580214" lon="3.764298180919757"><ele>312.0</ele><time>2026-04-03T08:28:27Z</time></trkpt><trkpt lat="44.16805668758138" lon="3.7642116650545994"><ele>312.75</ele><time>2026-04-03T08:28:28Z</time></trkpt><trkpt lat="44.16790718678245" lon="3.764146094104744"><ele>313.5</ele><time>2026-04-03T08:28:29Z</time></trkpt><trkpt lat="44.1677682083593" lon="3.7640793713336893"><ele>314.25</ele><time>2026-04-03T08:28:30Z</time></trkpt><trkpt lat="44.16764050363811" lon="3.7640098545251943"><ele>315.0</ele><time>2026-04-03T08:28:31Z</time></trkpt><trkpt lat="44.167512108033776" lon="3.7639690796378003"><ele>315.0</ele><time>2026-04-03T08:28:32Z</time></trkpt><trkpt lat="44.16738187747169" lon="3.764003584956337"><ele>315.0</ele><time>2026-04-03T08:28:33Z</time></trkpt><trkpt lat="44.16721117694453" lon="3.764057618973754"><ele>315.0</ele><time>2026-04-03T08:28:34Z</time></trkpt><trkpt lat="44.16703750307891" lon="3.764089434649233"><ele>313.3333333333333</ele><time>2026-04-03T08:28:35Z</time></trkpt><trkpt lat="44.166881555703284" lon="3.7641184906754153"><ele>311.66666666666663</ele><time>2026-04-03T08:28:36Z</time></trkpt><trkpt lat="44.16673059697925" lon="3.764111339872609"><ele>310.0</ele><time>2026-04-03T08:28:37Z</time></trkpt><trkpt lat="44.16658935904153" lon="3.7641350845686223"><ele>309.5</ele><time>2026-04-03T08:28:38Z</time></trkpt><trkpt lat="44.16645733266771" lon="3.764170901710631"><ele>309.0</ele><time>2026-04-03T08:28:39Z</time></trkpt><trkpt lat="44.16632741355594" lon="3.76421255438196"><ele>308.5</ele><time>2026-04-03T08:28:40Z</time></trkpt><trkpt lat="44.16619560976694" lon="3.764258951016055"><ele>308.0</ele><time>2026-04-03T08:28:41Z</time></trkpt><trkpt lat="44.16607245869456" lon="3.7643203873301716"><ele>307.6</ele><time>2026-04-03T08:28:42Z</time></trkpt><trkpt lat="44.1659974468562" lon="3.764435686558296"><ele>307.20000000000005</ele><time>2026-04-03T08:28:43Z</time></trkpt><trkpt lat="44.16594896974982" lon="3.7645742737534316"><ele>306.8</ele><time>2026-04-03T08:28:44Z</time></trkpt><trkpt lat="44.16594601441739" lon="3.764703734043625"><ele>306.40000000000003</ele><time>2026-04-03T08:28:45Z</time></trkpt><trkpt lat="44.16595285685708" lon="3.764814650677622"><ele>306.0</ele><time>2026-04-03T08:28:46Z</time></trkpt><trkpt lat="44.16595773151754" lon="3.7649045592268626"><ele>306.0</ele><time>2026-04-03T08:28:47Z</time></trkpt><trkpt lat="44.165963324404835" lon="3.7649953918395624"><ele>306.0</ele><time>2026-04-03T08:28:48Z</time></trkpt><trkpt lat="44.16596963665515" lon="3.7651007333505375"><ele>306.0</ele><time>2026-04-03T08:28:49Z</time></trkpt><trkpt lat="44.16597801704877" lon="3.7652656223571057"><ele>306.0</ele><time>2026-04-03T08:28:50Z</time></trkpt><trkpt lat="44.16599280776462" lon="3.7654972268210622"><ele>306.0</ele><time>2026-04-03T08:28:51Z</time></trkpt><trkpt lat="44.16600908616444" lon="3.7657320267800043"><ele>306.3333333333333</ele><time>2026-04-03T08:28:52Z</time></trkpt><trkpt lat="44.16601909364388" lon="3.765991804671248"><ele>306.66666666666663</ele><time>2026-04-03T08:28:53Z</time></trkpt><trkpt lat="44.16602936847506" lon="3.766264916762775"><ele>307.0</ele><time>2026-04-03T08:28:54Z</time></trkpt><trkpt lat="44.16600667865908" lon="3.766534985451371"><ele>308.0</ele><time>2026-04-03T08:28:55Z</time></trkpt><trkpt lat="44.16596520716753" lon="3.7667896601977047"><ele>309.0</ele><time>2026-04-03T08:28:56Z</time></trkpt><trkpt lat="44.16586258190788" lon="3.7669892932803477"><ele>310.0</ele><time>2026-04-03T08:28:57Z</time></trkpt><trkpt lat="44.16575059164401" lon="3.7671669222742215"><ele>309.5</ele><time>2026-04-03T08:28:58Z</time></trkpt><trkpt lat="44.16565755967345" lon="3.767348343661765"><ele>309.0</ele><time>2026-04-03T08:28:59Z</time></trkpt><trkpt lat="44.16555437208717" lon="3.7674712461604902"><ele>308.5</ele><time>2026-04-03T08:29:00Z</time></trkpt><trkpt lat="44.1654881799266" lon="3.7675813478372797"><ele>308.0</ele><time>2026-04-03T08:29:01Z</time></trkpt><trkpt lat="44.165445809816845" lon="3.7677082224767338"><ele>308.0</ele><time>2026-04-03T08:29:02Z</time></trkpt><trkpt lat="44.165426620090514" lon="3.7678328351017685"><ele>308.0</ele><time>2026-04-03T08:29:03Z</time></trkpt><trkpt lat="44.16541912947049" lon="3.7679457031979635"><ele>308.0</ele><time>2026-04-03T08:29:04Z</time></trkpt><trkpt lat="44.165413513872544" lon="3.768048660475978"><ele>308.0</ele><time>2026-04-03T08:29:05Z</time></trkpt><trkpt lat="44.16542002949056" lon="3.7681512712781013"><ele>308.0</ele><time>2026-04-03T08:29:06Z</time></trkpt><trkpt lat="44.16543929351311" lon="3.768252624541726"><ele>308.0</ele><time>2026-04-03T08:29:07Z</time></trkpt><trkpt lat="44.16546279785572" lon="3.768354416148093"><ele>308.0</ele><time>2026-04-03T08:29:08Z</time></trkpt><trkpt lat="44.16548756186793" lon="3.7684614779461625"><ele>308.0</ele><time>2026-04-03T08:29:09Z</time></trkpt><trkpt lat="44.165511660155836" lon="3.768560888656361"><ele>308.0</ele><time>2026-04-03T08:29:10Z</time></trkpt><trkpt lat="44.165540338567446" lon="3.768658859563248"><ele>308.0</ele><time>2026-04-03T08:29:11Z</time></trkpt><trkpt lat="44.16556903874454" lon="3.7687691584844467"><ele>308.0</ele><time>2026-04-03T08:29:12Z</time></trkpt><trkpt lat="44.16557734100447" lon="3.7688907683204365"><ele>308.0</ele><time>2026-04-03T08:29:13Z</time></trkpt><trkpt lat="44.16558035147542" lon="3.76900941076549"><ele>307.6</ele><time>2026-04-03T08:29:14Z</time></trkpt><trkpt lat="44.165569487435874" lon="3.7691398711115713"><ele>307.20000000000005</ele><time>2026-04-03T08:29:15Z</time></trkpt><trkpt lat="44.16554768532577" lon="3.7692788744123598"><ele>306.8</ele><time>2026-04-03T08:29:16Z</time></trkpt><trkpt lat="44.165528838257444" lon="3.769420652555385"><ele>306.40000000000003</ele><time>2026-04-03T08:29:17Z</time></trkpt><trkpt lat="44.16548898673736" lon="3.76955873553232"><ele>306.0</ele><time>2026-04-03T08:29:18Z</time></trkpt><trkpt lat="44.1654400900889" lon="3.769698531850582"><ele>306.0</ele><time>2026-04-03T08:29:19Z</time></trkpt><trkpt lat="44.16539091491418" lon="3.7698424494507448"><ele>306.0</ele><time>2026-04-03T08:29:20Z</time></trkpt><trkpt lat="44.16534300462588" lon="3.7699879640213676"><ele>306.0</ele><time>2026-04-03T08:29:21Z</time></trkpt><trkpt lat="44.16528807025121" lon="3.7701492756510753"><ele>306.0</ele><time>2026-04-03T08:29:22Z</time></trkpt><trkpt lat="44.165231529833264" lon="3.770322811036528"><ele>308.5</ele><time>2026-04-03T08:29:23Z</time></trkpt><trkpt lat="44.16516782289923" lon="3.770496455655927"><ele>311.0</ele><time>2026-04-03T08:29:24Z</time></trkpt><trkpt lat="44.1650922841733" lon="3.7706690928566102"><ele>313.5</ele><time>2026-04-03T08:29:25Z</time></trkpt><trkpt lat="44.16501319099082" lon="3.770838841401762"><ele>316.0</ele><time>2026-04-03T08:29:26Z</time></trkpt><trkpt lat="44.1649317468848" lon="3.7710068499761458"><ele>310.3333333333333</ele><time>2026-04-03T08:29:27Z</time></trkpt><trkpt lat="44.16485609889943" lon="3.7711880272377876"><ele>304.6666666666667</ele><time>2026-04-03T08:29:28Z</time></trkpt><trkpt lat="44.16477952298076" lon="3.7713783338522946"><ele>299.0</ele><time>2026-04-03T08:29:29Z</time></trkpt><trkpt lat="44.164721903188074" lon="3.7715820186396116"><ele>299.0</ele><time>2026-04-03T08:29:30Z</time></trkpt><trkpt lat="44.164665555903234" lon="3.7717922978821408"><ele>299.0</ele><time>2026-04-03T08:29:31Z</time></trkpt><trkpt lat="44.16461759878673" lon="3.7720283995200106"><ele>299.0</ele><time>2026-04-03T08:29:32Z</time></trkpt><trkpt lat="44.164530309201716" lon="3.772243918136451"><ele>300.6666666666667</ele><time>2026-04-03T08:29:33Z</time></trkpt><trkpt lat="44.164458728668485" lon="3.772459904033423"><ele>302.3333333333333</ele><time>2026-04-03T08:29:34Z</time></trkpt><trkpt lat="44.16439739208333" lon="3.7726791715404775"><ele>304.0</ele><time>2026-04-03T08:29:35Z</time></trkpt><trkpt lat="44.16434624247875" lon="3.7728988369112155"><ele>304.66666666666663</ele><time>2026-04-03T08:29:36Z</time></trkpt><trkpt lat="44.16433199498853" lon="3.773135742580139"><ele>305.3333333333333</ele><time>2026-04-03T08:29:37Z</time></trkpt><trkpt lat="44.1643022111532" lon="3.773377566796469"><ele>306.0</ele><time>2026-04-03T08:29:38Z</time></trkpt><trkpt lat="44.16425879785547" lon="3.773638648419881"><ele>306.6666666666667</ele><time>2026-04-03T08:29:39Z</time></trkpt><trkpt lat="44.16424348298814" lon="3.77391715625498"><ele>307.33333333333337</ele><time>2026-04-03T08:29:40Z</time></trkpt><trkpt lat="44.164208172702956" lon="3.774183865660369"><ele>308.0</ele><time>2026-04-03T08:29:41Z</time></trkpt><trkpt lat="44.16417801182719" lon="3.774456078702702"><ele>308.33333333333337</ele><time>2026-04-03T08:29:42Z</time></trkpt><trkpt lat="44.16413082569417" lon="3.7747286635058726"><ele>308.6666666666667</ele><time>2026-04-03T08:29:43Z</time></trkpt><trkpt lat="44.16409901672651" lon="3.7750029334899255"><ele>309.0</ele><time>2026-04-03T08:29:44Z</time></trkpt><trkpt lat="44.16407223401032" lon="3.775282115345645"><ele>310.6666666666667</ele><time>2026-04-03T08:29:45Z</time></trkpt><trkpt lat="44.16406197065137" lon="3.7755660535901536"><ele>312.33333333333337</ele><time>2026-04-03T08:29:46Z</time></trkpt><trkpt lat="44.164032977713525" lon="3.7758423528970506"><ele>314.0</ele><time>2026-04-03T08:29:47Z</time></trkpt><trkpt lat="44.16400272653428" lon="3.7761072712399777"><ele>307.33333333333337</ele><time>2026-04-03T08:29:48Z</time></trkpt><trkpt lat="44.16397359200677" lon="3.776358458289759"><ele>300.6666666666667</ele><time>2026-04-03T08:29:49Z</time></trkpt><trkpt lat="44.163943983792315" lon="3.7766040601740225"><ele>294.0</ele><time>2026-04-03T08:29:50Z</time></trkpt><trkpt lat="44.16391009104271" lon="3.7768422012923897"><ele>295.75</ele><time>2026-04-03T08:29:51Z</time></trkpt><trkpt lat="44.16387812377872" lon="3.777051495780266"><ele>297.5</ele><time>2026-04-03T08:29:52Z</time></trkpt><trkpt lat="44.16386819542998" lon="3.7771943685208877"><ele>299.25</ele><time>2026-04-03T08:29:53Z</time></trkpt><trkpt lat="44.16389888192195" lon="3.7773427564614055"><ele>301.0</ele><time>2026-04-03T08:29:54Z</time></trkpt><trkpt lat="44.16397581034277" lon="3.7774413599361027"><ele>300.3333333333333</ele><time>2026-04-03T08:29:55Z</time></trkpt><trkpt lat="44.164099292298026" lon="3.7775038577231657"><ele>299.6666666666667</ele><time>2026-04-03T08:29:56Z</time></trkpt><trkpt lat="44.16423330259432" lon="3.777607395490976"><ele>299.0</ele><time>2026-04-03T08:29:57Z</time></trkpt><trkpt lat="44.164365719979976" lon="3.777770153923313"><ele>297.6666666666667</ele><time>2026-04-03T08:29:58Z</time></trkpt><trkpt lat="44.16450891196519" lon="3.7779413876217824"><ele>296.3333333333333</ele><time>2026-04-03T08:29:59Z</time></trkpt><trkpt lat="44.164644182206345" lon="3.778089390203637"><ele>295.0</ele><time>2026-04-03T08:30:00Z</time></trkpt><trkpt lat="44.16478423219625" lon="3.778245197507053"><ele>294.3333333333333</ele><time>2026-04-03T08:30:01Z</time></trkpt><trkpt lat="44.16493532198838" lon="3.778420826560512"><ele>293.6666666666667</ele><time>2026-04-03T08:30:02Z</time></trkpt><trkpt lat="44.16507528516078" lon="3.77859492752002"><ele>293.0</ele><time>2026-04-03T08:30:03Z</time></trkpt><trkpt lat="44.165212043281485" lon="3.7787721194789414"><ele>293.0</ele><time>2026-04-03T08:30:04Z</time></trkpt><trkpt lat="44.16534603562018" lon="3.7789796455123135"><ele>293.0</ele><time>2026-04-03T08:30:05Z</time></trkpt><trkpt lat="44.16545298101493" lon="3.7792204379197614"><ele>293.0</ele><time>2026-04-03T08:30:06Z</time></trkpt><trkpt lat="44.16552701889847" lon="3.7794616804324805"><ele>293.6666666666667</ele><time>2026-04-03T08:30:07Z</time></trkpt><trkpt lat="44.16562057297547" lon="3.7797573185745046"><ele>294.3333333333333</ele><time>2026-04-03T08:30:08Z</time></trkpt><trkpt lat="44.165681420227905" lon="3.780023651750452"><ele>295.0</ele><time>2026-04-03T08:30:09Z</time></trkpt><trkpt lat="44.165715783083165" lon="3.7802798164918214"><ele>295.0</ele><time>2026-04-03T08:30:10Z</time></trkpt><trkpt lat="44.16571782668634" lon="3.780516032993111"><ele>295.0</ele><time>2026-04-03T08:30:11Z</time></trkpt><trkpt lat="44.16566770078045" lon="3.780710761626082"><ele>295.0</ele><time>2026-04-03T08:30:12Z</time></trkpt><trkpt lat="44.165584509930255" lon="3.7808913298790854"><ele>295.3333333333333</ele><time>2026-04-03T08:30:13Z</time></trkpt><trkpt lat="44.16547621908811" lon="3.781127077693727"><ele>295.6666666666667</ele><time>2026-04-03T08:30:14Z</time></trkpt><trkpt lat="44.165369108405166" lon="3.7813683072760953"><ele>296.0</ele><time>2026-04-03T08:30:15Z</time></trkpt><trkpt lat="44.1652874464236" lon="3.7815461258999803"><ele>296.0</ele><time>2026-04-03T08:30:16Z</time></trkpt><trkpt lat="44.1652410949962" lon="3.781703866547122"><ele>296.0</ele><time>2026-04-03T08:30:17Z</time></trkpt><trkpt lat="44.16520626445743" lon="3.781874741908955"><ele>296.0</ele><time>2026-04-03T08:30:18Z</time></trkpt><trkpt lat="44.165215588419606" lon="3.782091867040652"><ele>296.0</ele><time>2026-04-03T08:30:19Z</time></trkpt><trkpt lat="44.16521621318481" lon="3.78231303812786"><ele>295.75</ele><time>2026-04-03T08:30:20Z</time></trkpt><trkpt lat="44.16520101307703" lon="3.7824766563669305"><ele>295.5</ele><time>2026-04-03T08:30:21Z</time></trkpt><trkpt lat="44.165124526588805" lon="3.782593289173864"><ele>295.25</ele><time>2026-04-03T08:30:22Z</time></trkpt><trkpt lat="44.165024591844144" lon="3.782632347303326"><ele>295.0</ele><time>2026-04-03T08:30:23Z</time></trkpt><trkpt lat="44.16489977225669" lon="3.7827120441858546"><ele>295.0</ele><time>2026-04-03T08:30:24Z</time></trkpt><trkpt lat="44.164760261457076" lon="3.7828153445768224"><ele>295.0</ele><time>2026-04-03T08:30:25Z</time></trkpt><trkpt lat="44.16464550538759" lon="3.782944688791479"><ele>295.0</ele><time>2026-04-03T08:30:26Z</time></trkpt><trkpt lat="44.16452833749239" lon="3.7830900571356416"><ele>295.0</ele><time>2026-04-03T08:30:27Z</time></trkpt><trkpt lat="44.164413565520874" lon="3.783280271646275"><ele>295.0</ele><time>2026-04-03T08:30:28Z</time></trkpt><trkpt lat="44.16428935649741" lon="3.783435519895458"><ele>295.0</ele><time>2026-04-03T08:30:29Z</time></trkpt><trkpt lat="44.164183791419674" lon="3.7835861850508574"><ele>293.75</ele><time>2026-04-03T08:30:30Z</time></trkpt><trkpt lat="44.16408197126945" lon="3.783724885248264"><ele>292.5</ele><time>2026-04-03T08:30:31Z</time></trkpt><trkpt lat="44.16399327417939" lon="3.783869670943246"><ele>291.25</ele><time>2026-04-03T08:30:32Z</time></trkpt><trkpt lat="44.163888154577634" lon="3.78400219298432"><ele>290.0</ele><time>2026-04-03T08:30:33Z</time></trkpt><trkpt lat="44.163784052299896" lon="3.7841460881907385"><ele>290.0</ele><time>2026-04-03T08:30:34Z</time></trkpt><trkpt lat="44.16368225562749" lon="3.784297503662595"><ele>290.0</ele><time>2026-04-03T08:30:35Z</time></trkpt><trkpt lat="44.16358225542811" lon="3.78444623755983"><ele>290.0</ele><time>2026-04-03T08:30:36Z</time></trkpt><trkpt lat="44.163464726524836" lon="3.784564018442909"><ele>290.0</ele><time>2026-04-03T08:30:37Z</time></trkpt><trkpt lat="44.163353719535664" lon="3.78466692061711"><ele>289.4</ele><time>2026-04-03T08:30:38Z</time></trkpt><trkpt lat="44.163242551801474" lon="3.7847473600997406"><ele>288.8</ele><time>2026-04-03T08:30:39Z</time></trkpt><trkpt lat="44.163161401514934" lon="3.7848172621169023"><ele>288.2</ele><time>2026-04-03T08:30:40Z</time></trkpt><trkpt lat="44.1631207555231" lon="3.7849350316610253"><ele>287.6</ele><time>2026-04-03T08:30:41Z</time></trkpt><trkpt lat="44.163125418936296" lon="3.785056601665474"><ele>287.0</ele><time>2026-04-03T08:30:42Z</time></trkpt><trkpt lat="44.16317991947428" lon="3.7851617574329812"><ele>287.0</ele><time>2026-04-03T08:30:43Z</time></trkpt><trkpt lat="44.16327007497036" lon="3.785249750726868"><ele>287.0</ele><time>2026-04-03T08:30:44Z</time></trkpt><trkpt lat="44.16339215535498" lon="3.785311045967191"><ele>287.0</ele><time>2026-04-03T08:30:45Z</time></trkpt><trkpt lat="44.16351977330079" lon="3.785363595682219"><ele>287.0</ele><time>2026-04-03T08:30:46Z</time></trkpt><trkpt lat="44.16364577737046" lon="3.7854165613449684"><ele>287.0</ele><time>2026-04-03T08:30:47Z</time></trkpt><trkpt lat="44.163770134938815" lon="3.7854737837055574"><ele>287.0</ele><time>2026-04-03T08:30:48Z</time></trkpt><trkpt lat="44.16386757007657" lon="3.785582793260763"><ele>287.0</ele><time>2026-04-03T08:30:49Z</time></trkpt><trkpt lat="44.16394541368323" lon="3.7857106537791183"><ele>287.0</ele><time>2026-04-03T08:30:50Z</time></trkpt><trkpt lat="44.164034546081865" lon="3.7858653006517966"><ele>289.0</ele><time>2026-04-03T08:30:51Z</time></trkpt><trkpt lat="44.16407896524055" lon="3.78606330129742"><ele>291.0</ele><time>2026-04-03T08:30:52Z</time></trkpt><trkpt lat="44.16414843713586" lon="3.7862729093471605"><ele>293.0</ele><time>2026-04-03T08:30:53Z</time></trkpt><trkpt lat="44.16422373422504" lon="3.786492201032527"><ele>293.0</ele><time>2026-04-03T08:30:54Z</time></trkpt><trkpt lat="44.16430533690107" lon="3.786721754171643"><ele>293.0</ele><time>2026-04-03T08:30:55Z</time></trkpt><trkpt lat="44.16439542830155" lon="3.7869735158988043"><ele>293.0</ele><time>2026-04-03T08:30:56Z</time></trkpt><trkpt lat="44.16449716497071" lon="3.787221799410742"><ele>291.0</ele><time>2026-04-03T08:30:57Z</time></trkpt><trkpt lat="44.16459132132039" lon="3.787473299144831"><ele>289.0</ele><time>2026-04-03T08:30:58Z</time></trkpt><trkpt lat="44.164683537400926" lon="3.787726772103257"><ele>287.0</ele><time>2026-04-03T08:30:59Z</time></trkpt><trkpt lat="44.164772152893185" lon="3.787982445419794"><ele>286.33333333333337</ele><time>2026-04-03T08:31:00Z</time></trkpt><trkpt lat="44.164849023848014" lon="3.7882233576239663"><ele>285.6666666666667</ele><time>2026-04-03T08:31:01Z</time></trkpt><trkpt lat="44.16492214744475" lon="3.7884582734629357"><ele>285.0</ele><time>2026-04-03T08:31:02Z</time></trkpt><trkpt lat="44.1650027202985" lon="3.788678380606309"><ele>286.6666666666667</ele><time>2026-04-03T08:31:03Z</time></trkpt><trkpt lat="44.165109013165775" lon="3.7888589130655883"><ele>288.33333333333337</ele><time>2026-04-03T08:31:04Z</time></trkpt><trkpt lat="44.165227078691" lon="3.789010084864136"><ele>290.0</ele><time>2026-04-03T08:31:05Z</time></trkpt><trkpt lat="44.165223911566926" lon="3.7892529085888826"><ele>288.33333333333337</ele><time>2026-04-03T08:31:06Z</time></trkpt><trkpt lat="44.16530370012501" lon="3.789491315579421"><ele>286.6666666666667</ele><time>2026-04-03T08:31:07Z</time></trkpt><trkpt lat="44.16541278387261" lon="3.7897119304997733"><ele>285.0</ele><time>2026-04-03T08:31:08Z</time></trkpt><trkpt lat="44.16553476132745" lon="3.789948659493223"><ele>283.6666666666667</ele><time>2026-04-03T08:31:09Z</time></trkpt><trkpt lat="44.16560702303897" lon="3.790191367780627"><ele>282.33333333333337</ele><time>2026-04-03T08:31:10Z</time></trkpt><trkpt lat="44.165659755542904" lon="3.7904277204486867"><ele>281.0</ele><time>2026-04-03T08:31:11Z</time></trkpt><trkpt lat="44.16572117192661" lon="3.790637346705815"><ele>283.5</ele><time>2026-04-03T08:31:12Z</time></trkpt><trkpt lat="44.1657502130831" lon="3.790830046238278"><ele>286.0</ele><time>2026-04-03T08:31:13Z</time></trkpt><trkpt lat="44.165773821316876" lon="3.7909981679376"><ele>288.5</ele><time>2026-04-03T08:31:14Z</time></trkpt><trkpt lat="44.16577285140451" lon="3.7911508861335026"><ele>291.0</ele><time>2026-04-03T08:31:15Z</time></trkpt><trkpt lat="44.16570985617125" lon="3.7912537910973936"><ele>289.5</ele><time>2026-04-03T08:31:16Z</time></trkpt><trkpt lat="44.165617445518784" lon="3.791313066544538"><ele>288.0</ele><time>2026-04-03T08:31:17Z</time></trkpt><trkpt lat="44.16552675130652" lon="3.791436316497068"><ele>286.5</ele><time>2026-04-03T08:31:18Z</time></trkpt><trkpt lat="44.16542830650756" lon="3.7915612106723864"><ele>285.0</ele><time>2026-04-03T08:31:19Z</time></trkpt><trkpt lat="44.1653311896489" lon="3.7916538355596745"><ele>285.0</ele><time>2026-04-03T08:31:20Z</time></trkpt><trkpt lat="44.16522372167246" lon="3.7917439685925713"><ele>285.0</ele><time>2026-04-03T08:31:21Z</time></trkpt><trkpt lat="44.165121215458626" lon="3.79184074820335"><ele>285.0</ele><time>2026-04-03T08:31:22Z</time></trkpt><trkpt lat="44.16501283387072" lon="3.7919599252509695"><ele>285.0</ele><time>2026-04-03T08:31:23Z</time></trkpt><trkpt lat="44.16489051090139" lon="3.792045815301867"><ele>284.25</ele><time>2026-04-03T08:31:24Z</time></trkpt><trkpt lat="44.16478127558907" lon="3.7921630864706612"><ele>283.5</ele><time>2026-04-03T08:31:25Z</time></trkpt><trkpt lat="44.16466567494034" lon="3.792280049791147"><ele>282.75</ele><time>2026-04-03T08:31:26Z</time></trkpt><trkpt lat="44.164548405693346" lon="3.7924249500696803"><ele>282.0</ele><time>2026-04-03T08:31:27Z</time></trkpt><trkpt lat="44.1644265565499" lon="3.7925905171131506"><ele>281.0</ele><time>2026-04-03T08:31:28Z</time></trkpt><trkpt lat="44.16430303376256" lon="3.792754848753433"><ele>280.0</ele><time>2026-04-03T08:31:29Z</time></trkpt><trkpt lat="44.16417034408816" lon="3.792926083251356"><ele>279.0</ele><time>2026-04-03T08:31:30Z</time></trkpt><trkpt lat="44.16402104950855" lon="3.7931169566408416"><ele>279.0</ele><time>2026-04-03T08:31:31Z</time></trkpt><trkpt lat="44.16386831792667" lon="3.7933051680987893"><ele>279.0</ele><time>2026-04-03T08:31:32Z</time></trkpt><trkpt lat="44.163709543219866" lon="3.7934948671107156"><ele>279.0</ele><time>2026-04-03T08:31:33Z</time></trkpt><trkpt lat="44.163556508989515" lon="3.7937065087666144"><ele>280.3333333333333</ele><time>2026-04-03T08:31:34Z</time></trkpt><trkpt lat="44.16338705513358" lon="3.7938864810922133"><ele>281.66666666666663</ele><time>2026-04-03T08:31:35Z</time></trkpt><trkpt lat="44.16321984680492" lon="3.794055624504501"><ele>283.0</ele><time>2026-04-03T08:31:36Z</time></trkpt><trkpt lat="44.16305487587693" lon="3.794201877074001"><ele>284.3333333333333</ele><time>2026-04-03T08:31:37Z</time></trkpt><trkpt lat="44.16290192755221" lon="3.794367802672702"><ele>285.6666666666667</ele><time>2026-04-03T08:31:38Z</time></trkpt><trkpt lat="44.16276935795976" lon="3.7945634027046884"><ele>287.0</ele><time>2026-04-03T08:31:39Z</time></trkpt><trkpt lat="44.16265066932101" lon="3.7947523820944267"><ele>287.0</ele><time>2026-04-03T08:31:40Z</time></trkpt><trkpt lat="44.16254476468889" lon="3.7949358922724685"><ele>287.0</ele><time>2026-04-03T08:31:41Z</time></trkpt><trkpt lat="44.16246117267396" lon="3.7951314320762024"><ele>287.0</ele><time>2026-04-03T08:31:42Z</time></trkpt><trkpt lat="44.1624129408967" lon="3.795346660679305"><ele>286.33333333333337</ele><time>2026-04-03T08:31:43Z</time></trkpt><trkpt lat="44.16239875496156" lon="3.7955682948333553"><ele>285.6666666666667</ele><time>2026-04-03T08:31:44Z</time></trkpt><trkpt lat="44.16240884605094" lon="3.795778445624327"><ele>285.0</ele><time>2026-04-03T08:31:45Z</time></trkpt><trkpt lat="44.16247224118292" lon="3.795983219252322"><ele>282.6666666666667</ele><time>2026-04-03T08:31:46Z</time></trkpt><trkpt lat="44.16259106466208" lon="3.796191032327669"><ele>280.33333333333337</ele><time>2026-04-03T08:31:47Z</time></trkpt><trkpt lat="44.162733090046494" lon="3.796398499982737"><ele>278.0</ele><time>2026-04-03T08:31:48Z</time></trkpt><trkpt lat="44.162862262313574" lon="3.7966127202047355"><ele>278.0</ele><time>2026-04-03T08:31:49Z</time></trkpt><trkpt lat="44.16297874768316" lon="3.7968197696477923"><ele>278.0</ele><time>2026-04-03T08:31:50Z</time></trkpt><trkpt lat="44.16308610733699" lon="3.797015717062468"><ele>278.0</ele><time>2026-04-03T08:31:51Z</time></trkpt><trkpt lat="44.163193762161676" lon="3.7972159847685716"><ele>277.6666666666667</ele><time>2026-04-03T08:31:52Z</time></trkpt><trkpt lat="44.163297501173666" lon="3.797395346865438"><ele>277.3333333333333</ele><time>2026-04-03T08:31:53Z</time></trkpt><trkpt lat="44.16339820147363" lon="3.7975657721194467"><ele>277.0</ele><time>2026-04-03T08:31:54Z</time></trkpt><trkpt lat="44.163492979388636" lon="3.7977283840131095"><ele>277.0</ele><time>2026-04-03T08:31:55Z</time></trkpt><trkpt lat="44.16358407995668" lon="3.7978819206396532"><ele>277.0</ele><time>2026-04-03T08:31:56Z</time></trkpt><trkpt lat="44.16366882770323" lon="3.798028296735871"><ele>277.0</ele><time>2026-04-03T08:31:57Z</time></trkpt><trkpt lat="44.16374676519994" lon="3.798174004684952"><ele>277.0</ele><time>2026-04-03T08:31:58Z</time></trkpt><trkpt lat="44.16382013225153" lon="3.798314045922965"><ele>277.0</ele><time>2026-04-03T08:31:59Z</time></trkpt><trkpt lat="44.163897366206406" lon="3.798457608046451"><ele>277.0</ele><time>2026-04-03T08:32:00Z</time></trkpt><trkpt lat="44.16398305787452" lon="3.7986046894590197"><ele>277.0</ele><time>2026-04-03T08:32:01Z</time></trkpt><trkpt lat="44.16408082581746" lon="3.798739789021408"><ele>277.0</ele><time>2026-04-03T08:32:02Z</time></trkpt><trkpt lat="44.16418294512914" lon="3.7988724882586515"><ele>277.5</ele><time>2026-04-03T08:32:03Z</time></trkpt><trkpt lat="44.16426555489187" lon="3.7990308586378627"><ele>278.0</ele><time>2026-04-03T08:32:04Z</time></trkpt><trkpt lat="44.16432837715109" lon="3.7992052922853663"><ele>278.5</ele><time>2026-04-03T08:32:05Z</time></trkpt><trkpt lat="44.16439431194746" lon="3.799377550929922"><ele>279.0</ele><time>2026-04-03T08:32:06Z</time></trkpt><trkpt lat="44.16446152985655" lon="3.799544878486387"><ele>277.25</ele><time>2026-04-03T08:32:07Z</time></trkpt><trkpt lat="44.16452431423728" lon="3.7996985637576515"><ele>275.5</ele><time>2026-04-03T08:32:08Z</time></trkpt><trkpt lat="44.16457891836867" lon="3.7998311948028545"><ele>273.75</ele><time>2026-04-03T08:32:09Z</time></trkpt><trkpt lat="44.16457942145363" lon="3.799975409004951"><ele>272.0</ele><time>2026-04-03T08:32:10Z</time></trkpt><trkpt lat="44.164551270796835" lon="3.800123083170642"><ele>272.0</ele><time>2026-04-03T08:32:11Z</time></trkpt><trkpt lat="44.16455906359762" lon="3.8002921019410074"><ele>272.0</ele><time>2026-04-03T08:32:12Z</time></trkpt><trkpt lat="44.1645460236438" lon="3.8004746042591426"><ele>272.0</ele><time>2026-04-03T08:32:13Z</time></trkpt><trkpt lat="44.1645400981697" lon="3.800662735498332"><ele>272.0</ele><time>2026-04-03T08:32:14Z</time></trkpt><trkpt lat="44.16453990895247" lon="3.8008587785344488"><ele>273.6666666666667</ele><time>2026-04-03T08:32:15Z</time></trkpt><trkpt lat="44.164532919397374" lon="3.8010788526712376"><ele>275.3333333333333</ele><time>2026-04-03T08:32:16Z</time></trkpt><trkpt lat="44.164519812803626" lon="3.8013031523779426"><ele>277.0</ele><time>2026-04-03T08:32:17Z</time></trkpt><trkpt lat="44.16449007751569" lon="3.801531299798662"><ele>277.0</ele><time>2026-04-03T08:32:18Z</time></trkpt><trkpt lat="44.16442692885302" lon="3.80174745237336"><ele>277.0</ele><time>2026-04-03T08:32:19Z</time></trkpt><trkpt lat="44.164359961394815" lon="3.801958968412204"><ele>277.0</ele><time>2026-04-03T08:32:20Z</time></trkpt><trkpt lat="44.16427797705431" lon="3.802157197137554"><ele>276.3333333333333</ele><time>2026-04-03T08:32:21Z</time></trkpt><trkpt lat="44.16418734548662" lon="3.8023454600232953"><ele>275.6666666666667</ele><time>2026-04-03T08:32:22Z</time></trkpt><trkpt lat="44.16409185317973" lon="3.802526282910677"><ele>275.0</ele><time>2026-04-03T08:32:23Z</time></trkpt><trkpt lat="44.16399842528182" lon="3.8026996498404353"><ele>275.0</ele><time>2026-04-03T08:32:24Z</time></trkpt><trkpt lat="44.163905412960375" lon="3.802872245592052"><ele>275.0</ele><time>2026-04-03T08:32:25Z</time></trkpt><trkpt lat="44.16382039520482" lon="3.8030534041905626"><ele>275.0</ele><time>2026-04-03T08:32:26Z</time></trkpt><trkpt lat="44.16370144463405" lon="3.8031983018779383"><ele>275.0</ele><time>2026-04-03T08:32:27Z</time></trkpt><trkpt lat="44.16358236724508" lon="3.8033434801342856"><ele>275.0</ele><time>2026-04-03T08:32:28Z</time></trkpt><trkpt lat="44.16345311777158" lon="3.8034652705335903"><ele>275.0</ele><time>2026-04-03T08:32:29Z</time></trkpt><trkpt lat="44.163321040663554" lon="3.8035376023010614"><ele>277.0</ele><time>2026-04-03T08:32:30Z</time></trkpt><trkpt lat="44.16318507235625" lon="3.8035999329532766"><ele>279.0</ele><time>2026-04-03T08:32:31Z</time></trkpt><trkpt lat="44.16305791830339" lon="3.8036529289349894"><ele>281.0</ele><time>2026-04-03T08:32:32Z</time></trkpt><trkpt lat="44.16293609586226" lon="3.803702981402549"><ele>283.0</ele><time>2026-04-03T08:32:33Z</time></trkpt><trkpt lat="44.1628141772106" lon="3.8037632467118843"><ele>283.0</ele><time>2026-04-03T08:32:34Z</time></trkpt><trkpt lat="44.16269976650071" lon="3.8038654251120674"><ele>283.0</ele><time>2026-04-03T08:32:35Z</time></trkpt><trkpt lat="44.1625807332763" lon="3.8039482950459798"><ele>283.0</ele><time>2026-04-03T08:32:36Z</time></trkpt><trkpt lat="44.16247695756206" lon="3.8040674533935266"><ele>283.0</ele><time>2026-04-03T08:32:37Z</time></trkpt><trkpt lat="44.16237162137813" lon="3.8042437873435127"><ele>279.66666666666663</ele><time>2026-04-03T08:32:38Z</time></trkpt><trkpt lat="44.162238932057555" lon="3.8044220574114584"><ele>276.3333333333333</ele><time>2026-04-03T08:32:39Z</time></trkpt><trkpt lat="44.162114535529575" lon="3.804613252181912"><ele>273.0</ele><time>2026-04-03T08:32:40Z</time></trkpt><trkpt lat="44.161989496231506" lon="3.804802550533378"><ele>273.0</ele><time>2026-04-03T08:32:41Z</time></trkpt><trkpt lat="44.16186512193917" lon="3.8049892167544312"><ele>273.0</ele><time>2026-04-03T08:32:42Z</time></trkpt><trkpt lat="44.16174500077468" lon="3.8051689456920914"><ele>273.0</ele><time>2026-04-03T08:32:43Z</time></trkpt><trkpt lat="44.16162566878667" lon="3.8053558637625438"><ele>271.3333333333333</ele><time>2026-04-03T08:32:44Z</time></trkpt><trkpt lat="44.16151137742477" lon="3.805543261046353"><ele>269.66666666666663</ele><time>2026-04-03T08:32:45Z</time></trkpt><trkpt lat="44.16139980272383" lon="3.805731616946335"><ele>268.0</ele><time>2026-04-03T08:32:46Z</time></trkpt><trkpt lat="44.16129687968305" lon="3.805915250188105"><ele>269.3333333333333</ele><time>2026-04-03T08:32:47Z</time></trkpt><trkpt lat="44.16119748684222" lon="3.806097314220979"><ele>270.6666666666667</ele><time>2026-04-03T08:32:48Z</time></trkpt><trkpt lat="44.161112970704856" lon="3.8062878611596624"><ele>272.0</ele><time>2026-04-03T08:32:49Z</time></trkpt><trkpt lat="44.16100230781592" lon="3.806440643306735"><ele>272.0</ele><time>2026-04-03T08:32:50Z</time></trkpt><trkpt lat="44.160937930675786" lon="3.8065980505389954"><ele>272.0</ele><time>2026-04-03T08:32:51Z</time></trkpt><trkpt lat="44.16089818401464" lon="3.8067592094827027"><ele>272.0</ele><time>2026-04-03T08:32:52Z</time></trkpt><trkpt lat="44.16089064450309" lon="3.8069836038862936"><ele>272.0</ele><time>2026-04-03T08:32:53Z</time></trkpt><trkpt lat="44.16086091471641" lon="3.807230956528135"><ele>273.33333333333337</ele><time>2026-04-03T08:32:54Z</time></trkpt><trkpt lat="44.16084167366867" lon="3.807488445155742"><ele>274.6666666666667</ele><time>2026-04-03T08:32:55Z</time></trkpt><trkpt lat="44.16081327806282" lon="3.8077494344775276"><ele>276.0</ele><time>2026-04-03T08:32:56Z</time></trkpt><trkpt lat="44.16077339419117" lon="3.807989278526617"><ele>274.3333333333333</ele><time>2026-04-03T08:32:57Z</time></trkpt><trkpt lat="44.160696364328786" lon="3.8082037619333375"><ele>272.66666666666663</ele><time>2026-04-03T08:32:58Z</time></trkpt><trkpt lat="44.16059689907084" lon="3.8083683019792076"><ele>271.0</ele><time>2026-04-03T08:32:59Z</time></trkpt><trkpt lat="44.1604707467391" lon="3.8084640465809234"><ele>273.0</ele><time>2026-04-03T08:33:00Z</time></trkpt><trkpt lat="44.16034243792869" lon="3.8085490205783357"><ele>275.0</ele><time>2026-04-03T08:33:01Z</time></trkpt><trkpt lat="44.16025341243162" lon="3.8086617365882334"><ele>277.0</ele><time>2026-04-03T08:33:02Z</time></trkpt><trkpt lat="44.16017484683458" lon="3.80884899942174"><ele>279.0</ele><time>2026-04-03T08:33:03Z</time></trkpt><trkpt lat="44.16009525631903" lon="3.8090891985237745"><ele>279.0</ele><time>2026-04-03T08:33:04Z</time></trkpt><trkpt lat="44.16001144778423" lon="3.809317065153894"><ele>279.0</ele><time>2026-04-03T08:33:05Z</time></trkpt><trkpt lat="44.159936995213876" lon="3.809511944771781"><ele>279.0</ele><time>2026-04-03T08:33:06Z</time></trkpt><trkpt lat="44.15988313024862" lon="3.8096350993642"><ele>279.0</ele><time>2026-04-03T08:33:07Z</time></trkpt><trkpt lat="44.159849586952625" lon="3.809716571452727"><ele>276.75</ele><time>2026-04-03T08:33:08Z</time></trkpt><trkpt lat="44.15979763994954" lon="3.809847996200552"><ele>274.5</ele><time>2026-04-03T08:34:06Z</time></trkpt><trkpt lat="44.15975731303366" lon="3.809958524003308"><ele>272.25</ele><time>2026-04-03T08:34:07Z</time></trkpt><trkpt lat="44.15970795088158" lon="3.81010153023224"><ele>270.0</ele><time>2026-04-03T08:34:08Z</time></trkpt><trkpt lat="44.1596499150289" lon="3.810281846405847"><ele>269.75</ele><time>2026-04-03T08:34:09Z</time></trkpt><trkpt lat="44.15959214925806" lon="3.810457565825784"><ele>269.5</ele><time>2026-04-03T08:34:10Z</time></trkpt><trkpt lat="44.15954525199982" lon="3.8106205458130504"><ele>269.25</ele><time>2026-04-03T08:34:11Z</time></trkpt><trkpt lat="44.15952101088551" lon="3.8108070447438127"><ele>269.0</ele><time>2026-04-03T08:34:12Z</time></trkpt><trkpt lat="44.15953454749064" lon="3.8110187487374296"><ele>269.75</ele><time>2026-04-03T08:34:13Z</time></trkpt><trkpt lat="44.159546216270016" lon="3.8112112799998603"><ele>270.5</ele><time>2026-04-03T08:34:14Z</time></trkpt><trkpt lat="44.15950336309632" lon="3.8114025752723304"><ele>271.25</ele><time>2026-04-03T08:34:15Z</time></trkpt><trkpt lat="44.15939546817138" lon="3.8115424731245557"><ele>272.0</ele><time>2026-04-03T08:34:16Z</time></trkpt><trkpt lat="44.15926956079443" lon="3.811689077601074"><ele>275.0</ele><time>2026-04-03T08:34:17Z</time></trkpt><trkpt lat="44.1591650664195" lon="3.8118846999723104"><ele>278.0</ele><time>2026-04-03T08:34:18Z</time></trkpt><trkpt lat="44.15908912849916" lon="3.812107448222331"><ele>281.0</ele><time>2026-04-03T08:34:19Z</time></trkpt><trkpt lat="44.15905225043234" lon="3.8123792763029742"><ele>277.33333333333337</ele><time>2026-04-03T08:34:20Z</time></trkpt><trkpt lat="44.159024202857054" lon="3.8126710655258798"><ele>273.6666666666667</ele><time>2026-04-03T08:34:21Z</time></trkpt><trkpt lat="44.15899776833965" lon="3.8129615850281144"><ele>270.0</ele><time>2026-04-03T08:34:22Z</time></trkpt><trkpt lat="44.15897622139965" lon="3.8132485454617084"><ele>269.3333333333333</ele><time>2026-04-03T08:34:23Z</time></trkpt><trkpt lat="44.158962874051205" lon="3.8135392323685138"><ele>268.66666666666663</ele><time>2026-04-03T08:34:24Z</time></trkpt><trkpt lat="44.15896569643972" lon="3.81382975437678"><ele>268.0</ele><time>2026-04-03T08:34:25Z</time></trkpt><trkpt lat="44.15898231774216" lon="3.8141215924630703"><ele>266.66666666666663</ele><time>2026-04-03T08:34:26Z</time></trkpt><trkpt lat="44.15901535259782" lon="3.814404752885205"><ele>265.3333333333333</ele><time>2026-04-03T08:34:27Z</time></trkpt><trkpt lat="44.159047308608116" lon="3.8146692882407875"><ele>264.0</ele><time>2026-04-03T08:34:28Z</time></trkpt><trkpt lat="44.15907479650785" lon="3.8149086477809426"><ele>270.0</ele><time>2026-04-03T08:34:29Z</time></trkpt><trkpt lat="44.15909993402948" lon="3.8151316164827116"><ele>276.0</ele><time>2026-04-03T08:34:30Z</time></trkpt><trkpt lat="44.15915373695423" lon="3.815347906914244"><ele>282.0</ele><time>2026-04-03T08:34:31Z</time></trkpt><trkpt lat="44.15926166611988" lon="3.8155743151312556"><ele>282.0</ele><time>2026-04-03T08:34:32Z</time></trkpt><trkpt lat="44.15936901743585" lon="3.815761194373051"><ele>282.0</ele><time>2026-04-03T08:34:33Z</time></trkpt><trkpt lat="44.15942991087426" lon="3.8159685530310674"><ele>282.0</ele><time>2026-04-03T08:34:34Z</time></trkpt><trkpt lat="44.15942777380571" lon="3.816198434966552"><ele>283.0</ele><time>2026-04-03T08:34:35Z</time></trkpt><trkpt lat="44.15937374208506" lon="3.816405118837428"><ele>284.0</ele><time>2026-04-03T08:34:36Z</time></trkpt><trkpt lat="44.15925456398957" lon="3.816545325916783"><ele>285.0</ele><time>2026-04-03T08:34:37Z</time></trkpt><trkpt lat="44.159150419716" lon="3.8167451578166465"><ele>281.3333333333333</ele><time>2026-04-03T08:34:38Z</time></trkpt><trkpt lat="44.15906942836062" lon="3.816989070686869"><ele>277.66666666666663</ele><time>2026-04-03T08:34:39Z</time></trkpt><trkpt lat="44.15900880285761" lon="3.817256450099957"><ele>274.0</ele><time>2026-04-03T08:34:40Z</time></trkpt><trkpt lat="44.15894268991639" lon="3.8175275031124616"><ele>279.0</ele><time>2026-04-03T08:34:41Z</time></trkpt><trkpt lat="44.15886568742332" lon="3.8177915663676716"><ele>284.0</ele><time>2026-04-03T08:34:42Z</time></trkpt><trkpt lat="44.15877533199522" lon="3.8180494008109545"><ele>289.0</ele><time>2026-04-03T08:34:43Z</time></trkpt><trkpt lat="44.15865009482198" lon="3.8182697021331653"><ele>289.0</ele><time>2026-04-03T08:34:44Z</time></trkpt><trkpt lat="44.15851682477788" lon="3.818473583256874"><ele>289.0</ele><time>2026-04-03T08:34:45Z</time></trkpt><trkpt lat="44.158370459950326" lon="3.818689655677438"><ele>289.0</ele><time>2026-04-03T08:34:46Z</time></trkpt><trkpt lat="44.15820264246333" lon="3.8188909705283636"><ele>289.66666666666663</ele><time>2026-04-03T08:34:47Z</time></trkpt><trkpt lat="44.15805160658794" lon="3.8190937188282565"><ele>290.3333333333333</ele><time>2026-04-03T08:34:48Z</time></trkpt><trkpt lat="44.15791493239967" lon="3.8192911773655247"><ele>291.0</ele><time>2026-04-03T08:34:49Z</time></trkpt><trkpt lat="44.15778998446915" lon="3.8195174523958175"><ele>291.0</ele><time>2026-04-03T08:34:50Z</time></trkpt><trkpt lat="44.157690350334796" lon="3.8197790394344295"><ele>291.0</ele><time>2026-04-03T08:34:51Z</time></trkpt><trkpt lat="44.15760646053797" lon="3.8200575889033876"><ele>291.0</ele><time>2026-04-03T08:34:52Z</time></trkpt><trkpt lat="44.15752641816256" lon="3.82031190307334"><ele>291.0</ele><time>2026-04-03T08:34:53Z</time></trkpt><trkpt lat="44.15750646096077" lon="3.820627772219804"><ele>291.0</ele><time>2026-04-03T08:34:54Z</time></trkpt><trkpt lat="44.157487295120326" lon="3.8209453366961927"><ele>292.6666666666667</ele><time>2026-04-03T08:34:55Z</time></trkpt><trkpt lat="44.15738329290007" lon="3.821225830721593"><ele>294.33333333333337</ele><time>2026-04-03T08:34:56Z</time></trkpt><trkpt lat="44.15732196097974" lon="3.8215168282639294"><ele>296.0</ele><time>2026-04-03T08:34:57Z</time></trkpt><trkpt lat="44.157254085540345" lon="3.8217948303616525"><ele>287.33333333333337</ele><time>2026-04-03T08:34:58Z</time></trkpt><trkpt lat="44.157205163032195" lon="3.8220723995060264"><ele>278.6666666666667</ele><time>2026-04-03T08:34:59Z</time></trkpt><trkpt lat="44.15715524537856" lon="3.8223249632117513"><ele>270.0</ele><time>2026-04-03T08:35:00Z</time></trkpt><trkpt lat="44.1571198780185" lon="3.822552582576087"><ele>276.25</ele><time>2026-04-03T08:35:01Z</time></trkpt><trkpt lat="44.1571107885304" lon="3.8227716771823457"><ele>282.5</ele><time>2026-04-03T08:35:02Z</time></trkpt><trkpt lat="44.157072159117796" lon="3.822958117310007"><ele>288.75</ele><time>2026-04-03T08:35:03Z</time></trkpt><trkpt lat="44.15699585353634" lon="3.8230931468223988"><ele>295.0</ele><time>2026-04-03T08:35:04Z</time></trkpt><trkpt lat="44.156875857719676" lon="3.823147070252494"><ele>295.0</ele><time>2026-04-03T08:35:05Z</time></trkpt><trkpt lat="44.15672793844049" lon="3.823139641556666"><ele>295.0</ele><time>2026-04-03T08:35:06Z</time></trkpt><trkpt lat="44.15652331202068" lon="3.823134063268546"><ele>295.0</ele><time>2026-04-03T08:35:07Z</time></trkpt><trkpt lat="44.15629772763515" lon="3.8231441354474507"><ele>292.0</ele><time>2026-04-03T08:35:08Z</time></trkpt><trkpt lat="44.15608743992973" lon="3.8231828329102955"><ele>289.0</ele><time>2026-04-03T08:35:09Z</time></trkpt><trkpt lat="44.15587984561959" lon="3.8231940068591412"><ele>286.0</ele><time>2026-04-03T08:35:10Z</time></trkpt><trkpt lat="44.15566908847042" lon="3.823217268501214"><ele>285.0</ele><time>2026-04-03T08:35:11Z</time></trkpt><trkpt lat="44.155457449549395" lon="3.8231859063229603"><ele>284.0</ele><time>2026-04-03T08:35:12Z</time></trkpt><trkpt lat="44.15524452006227" lon="3.82317397513195"><ele>283.0</ele><time>2026-04-03T08:35:13Z</time></trkpt><trkpt lat="44.15501760022456" lon="3.8231457615963103"><ele>278.66666666666663</ele><time>2026-04-03T08:35:14Z</time></trkpt><trkpt lat="44.154824839589516" lon="3.823162149705828"><ele>274.3333333333333</ele><time>2026-04-03T08:35:15Z</time></trkpt><trkpt lat="44.15466516001739" lon="3.8231980984484126"><ele>270.0</ele><time>2026-04-03T08:35:16Z</time></trkpt><trkpt lat="44.15451411527433" lon="3.823244325303388"><ele>270.0</ele><time>2026-04-03T08:35:17Z</time></trkpt><trkpt lat="44.1543755784172" lon="3.8232974356861713"><ele>270.0</ele><time>2026-04-03T08:35:18Z</time></trkpt><trkpt lat="44.15426298355154" lon="3.8233297473835677"><ele>270.0</ele><time>2026-04-03T08:35:19Z</time></trkpt><trkpt lat="44.15417567138096" lon="3.8233328738492345"><ele>270.0</ele><time>2026-04-03T08:35:20Z</time></trkpt><trkpt lat="44.15411202579404" lon="3.8233529941019446"><ele>270.0</ele><time>2026-04-03T08:35:21Z</time></trkpt><trkpt lat="44.154061863119715" lon="3.8234411798806547"><ele>268.8333333333333</ele><time>2026-04-03T08:35:23Z</time></trkpt><trkpt lat="44.15402972831135" lon="3.82354764024408"><ele>267.6666666666667</ele><time>2026-04-03T08:35:26Z</time></trkpt><trkpt lat="44.154001448041" lon="3.8236403401902024"><ele>266.5</ele><time>2026-04-03T08:35:29Z</time></trkpt><trkpt lat="44.153989897184665" lon="3.8237752197275205"><ele>265.33333333333337</ele><time>2026-04-03T08:35:31Z</time></trkpt><trkpt lat="44.15398832944339" lon="3.8238880452116315"><ele>264.1666666666667</ele><time>2026-04-03T08:35:33Z</time></trkpt><trkpt lat="44.15400885735852" lon="3.8240279864485824"><ele>263.0</ele><time>2026-04-03T08:35:35Z</time></trkpt><trkpt lat="44.15406041190279" lon="3.824117478360975"><ele>264.5</ele><time>2026-04-03T08:35:36Z</time></trkpt><trkpt lat="44.154129780844556" lon="3.824253538799663"><ele>266.0</ele><time>2026-04-03T08:35:37Z</time></trkpt><trkpt lat="44.1542052032749" lon="3.824426127472754"><ele>267.5</ele><time>2026-04-03T08:35:38Z</time></trkpt><trkpt lat="44.154283348157485" lon="3.8246353897025074"><ele>269.0</ele><time>2026-04-03T08:35:39Z</time></trkpt><trkpt lat="44.154363492262156" lon="3.8248824076929173"><ele>266.33333333333337</ele><time>2026-04-03T08:35:40Z</time></trkpt><trkpt lat="44.15445799556497" lon="3.825160638005179"><ele>263.6666666666667</ele><time>2026-04-03T08:35:41Z</time></trkpt><trkpt lat="44.15456014518136" lon="3.8254210312507024"><ele>261.0</ele><time>2026-04-03T08:35:42Z</time></trkpt><trkpt lat="44.154669576702894" lon="3.825653146141901"><ele>261.0</ele><time>2026-04-03T08:35:43Z</time></trkpt><trkpt lat="44.154794460282524" lon="3.825910557115797"><ele>261.0</ele><time>2026-04-03T08:35:44Z</time></trkpt><trkpt lat="44.154898925828455" lon="3.82618750042769"><ele>261.0</ele><time>2026-04-03T08:35:45Z</time></trkpt><trkpt lat="44.15497535702714" lon="3.8264618905255183"><ele>267.0</ele><time>2026-04-03T08:35:46Z</time></trkpt><trkpt lat="44.155027608085106" lon="3.8267247798974107"><ele>273.0</ele><time>2026-04-03T08:35:47Z</time></trkpt><trkpt lat="44.155014289071275" lon="3.8269798109650472"><ele>279.0</ele><time>2026-04-03T08:35:48Z</time></trkpt><trkpt lat="44.154990185252046" lon="3.8272420338972455"><ele>279.3333333333333</ele><time>2026-04-03T08:35:49Z</time></trkpt><trkpt lat="44.1549508583876" lon="3.8275194417657006"><ele>279.66666666666663</ele><time>2026-04-03T08:35:50Z</time></trkpt><trkpt lat="44.154901407381324" lon="3.8277778990867497"><ele>280.0</ele><time>2026-04-03T08:35:51Z</time></trkpt><trkpt lat="44.154856099899455" lon="3.8280206232045755"><ele>280.0</ele><time>2026-04-03T08:35:52Z</time></trkpt><trkpt lat="44.154782959966326" lon="3.8282370629414726"><ele>280.0</ele><time>2026-04-03T08:35:53Z</time></trkpt><trkpt lat="44.154682471194334" lon="3.8284253556658845"><ele>280.0</ele><time>2026-04-03T08:35:54Z</time></trkpt><trkpt lat="44.15454407509731" lon="3.828595081244614"><ele>280.0</ele><time>2026-04-03T08:35:55Z</time></trkpt><trkpt lat="44.154403302842226" lon="3.828753204770068"><ele>280.0</ele><time>2026-04-03T08:35:56Z</time></trkpt><trkpt lat="44.154283875570464" lon="3.8288956074382727"><ele>280.0</ele><time>2026-04-03T08:35:57Z</time></trkpt><trkpt lat="44.15414480003483" lon="3.828964233642213"><ele>276.6</ele><time>2026-04-03T08:35:58Z</time></trkpt><trkpt lat="44.154004079768725" lon="3.8289916814480276"><ele>273.2</ele><time>2026-04-03T08:35:59Z</time></trkpt><trkpt lat="44.153884670679744" lon="3.8290262636265866"><ele>269.8</ele><time>2026-04-03T08:36:00Z</time></trkpt><trkpt lat="44.15380308236358" lon="3.8289947312492965"><ele>266.4</ele><time>2026-04-03T08:36:01Z</time></trkpt><trkpt lat="44.15372944163558" lon="3.8289929939704197"><ele>263.0</ele><time>2026-04-03T08:36:03Z</time></trkpt><trkpt lat="44.15368855655386" lon="3.8290870231543117"><ele>263.0</ele><time>2026-04-03T08:36:05Z</time></trkpt><trkpt lat="44.153648729763134" lon="3.829157059592528"><ele>263.0</ele><time>2026-04-03T08:36:06Z</time></trkpt><trkpt lat="44.15356582336529" lon="3.829298090741893"><ele>263.0</ele><time>2026-04-03T08:36:08Z</time></trkpt><trkpt lat="44.1535142983517" lon="3.8293832156709544"><ele>263.0</ele><time>2026-04-03T08:36:10Z</time></trkpt><trkpt lat="44.15345300068793" lon="3.829448297026459"><ele>263.0</ele><time>2026-04-03T08:36:13Z</time></trkpt><trkpt lat="44.15345094358814" lon="3.829559127686264"><ele>263.0</ele><time>2026-04-03T08:36:16Z</time></trkpt><trkpt lat="44.15342843981498" lon="3.8296619113022867"><ele>263.6</ele><time>2026-04-03T08:36:18Z</time></trkpt><trkpt lat="44.1534132331923" lon="3.829769897252953"><ele>264.20000000000005</ele><time>2026-04-03T08:36:19Z</time></trkpt><trkpt lat="44.15338155594541" lon="3.8299267381414204"><ele>264.8</ele><time>2026-04-03T08:36:20Z</time></trkpt><trkpt lat="44.15332714649709" lon="3.8300720161485096"><ele>265.40000000000003</ele><time>2026-04-03T08:36:21Z</time></trkpt><trkpt lat="44.153283780487655" lon="3.8302208893968093"><ele>266.0</ele><time>2026-04-03T08:36:22Z</time></trkpt><trkpt lat="44.15318609944405" lon="3.830369170874417"><ele>266.0</ele><time>2026-04-03T08:36:23Z</time></trkpt><trkpt lat="44.15310645249313" lon="3.8305324468716466"><ele>266.0</ele><time>2026-04-03T08:36:24Z</time></trkpt><trkpt lat="44.15302284325089" lon="3.83067653948399"><ele>266.0</ele><time>2026-04-03T08:36:25Z</time></trkpt><trkpt lat="44.15298988577633" lon="3.8308176489216033"><ele>266.0</ele><time>2026-04-03T08:36:26Z</time></trkpt><trkpt lat="44.153020882771536" lon="3.830966179210453"><ele>266.25</ele><time>2026-04-03T08:36:27Z</time></trkpt><trkpt lat="44.153099334620215" lon="3.831048709192272"><ele>266.5</ele><time>2026-04-03T08:36:28Z</time></trkpt><trkpt lat="44.15320570413129" lon="3.8310703188531594"><ele>266.75</ele><time>2026-04-03T08:36:29Z</time></trkpt><trkpt lat="44.15335769210341" lon="3.8310730919591878"><ele>267.0</ele><time>2026-04-03T08:36:30Z</time></trkpt><trkpt lat="44.153536069369636" lon="3.8311162775274625"><ele>267.0</ele><time>2026-04-03T08:36:31Z</time></trkpt><trkpt lat="44.15372932672109" lon="3.8311772129588553"><ele>267.0</ele><time>2026-04-03T08:36:32Z</time></trkpt><trkpt lat="44.153912835513694" lon="3.831221177063074"><ele>267.0</ele><time>2026-04-03T08:36:33Z</time></trkpt><trkpt lat="44.15411153252952" lon="3.8312404719342217"><ele>267.0</ele><time>2026-04-03T08:36:34Z</time></trkpt><trkpt lat="44.15430094727338" lon="3.8313140334422187"><ele>267.0</ele><time>2026-04-03T08:36:35Z</time></trkpt><trkpt lat="44.1544861849286" lon="3.831444400677427"><ele>267.0</ele><time>2026-04-03T08:36:36Z</time></trkpt><trkpt lat="44.154686083764254" lon="3.8315435424769007"><ele>267.0</ele><time>2026-04-03T08:36:37Z</time></trkpt><trkpt lat="44.15486913303382" lon="3.831645829930048"><ele>267.0</ele><time>2026-04-03T08:36:38Z</time></trkpt><trkpt lat="44.155030696834096" lon="3.8317084892858455"><ele>267.0</ele><time>2026-04-03T08:36:39Z</time></trkpt><trkpt lat="44.15515846560847" lon="3.831768666961105"><ele>267.8</ele><time>2026-04-03T08:36:40Z</time></trkpt><trkpt lat="44.155243306461074" lon="3.831846551095311"><ele>268.6</ele><time>2026-04-03T08:36:41Z</time></trkpt><trkpt lat="44.15524234526745" lon="3.831988153488063"><ele>269.40000000000003</ele><time>2026-04-03T08:36:42Z</time></trkpt><trkpt lat="44.15524476778894" lon="3.8321292279880947"><ele>270.2</ele><time>2026-04-03T08:36:43Z</time></trkpt><trkpt lat="44.15527729866151" lon="3.8323100033080713"><ele>271.0</ele><time>2026-04-03T08:36:44Z</time></trkpt><trkpt lat="44.155300518478015" lon="3.8324603483111677"><ele>271.0</ele><time>2026-04-03T08:36:45Z</time></trkpt><trkpt lat="44.15530063845655" lon="3.8326350714670836"><ele>271.0</ele><time>2026-04-03T08:36:47Z</time></trkpt><trkpt lat="44.155295251964" lon="3.832735630679591"><ele>271.0</ele><time>2026-04-03T08:36:48Z</time></trkpt><trkpt lat="44.15525609732971" lon="3.8328241744679334"><ele>271.0</ele><time>2026-04-03T08:36:49Z</time></trkpt><trkpt lat="44.155195916306255" lon="3.832946462429675"><ele>271.0</ele><time>2026-04-03T08:36:51Z</time></trkpt><trkpt lat="44.15519424035659" lon="3.8330409349004446"><ele>271.0</ele><time>2026-04-03T08:38:01Z</time></trkpt><trkpt lat="44.15521025031447" lon="3.833240809725033"><ele>270.6</ele><time>2026-04-03T08:41:15Z</time></trkpt><trkpt lat="44.15519901414986" lon="3.8333968719788367"><ele>270.20000000000005</ele><time>2026-04-03T08:41:16Z</time></trkpt><trkpt lat="44.1551886140129" lon="3.8335365256061062"><ele>269.79999999999995</ele><time>2026-04-03T08:41:17Z</time></trkpt><trkpt lat="44.155191772143816" lon="3.83369132539973"><ele>269.4</ele><time>2026-04-03T08:41:18Z</time></trkpt><trkpt lat="44.155223555672784" lon="3.833816432690733"><ele>269.0</ele><time>2026-04-03T08:41:19Z</time></trkpt><trkpt lat="44.155302823112564" lon="3.8338704841113285"><ele>269.0</ele><time>2026-04-03T08:41:20Z</time></trkpt><trkpt lat="44.15540450806988" lon="3.8338671679477745"><ele>269.0</ele><time>2026-04-03T08:41:21Z</time></trkpt><trkpt lat="44.15552408541715" lon="3.8338288250312367"><ele>269.0</ele><time>2026-04-03T08:41:22Z</time></trkpt><trkpt lat="44.15564722423704" lon="3.833801342973627"><ele>269.0</ele><time>2026-04-03T08:41:23Z</time></trkpt><trkpt lat="44.155775124984444" lon="3.8337828544102672"><ele>268.5</ele><time>2026-04-03T08:41:24Z</time></trkpt><trkpt lat="44.15590199874249" lon="3.8337712543506917"><ele>268.0</ele><time>2026-04-03T08:41:25Z</time></trkpt><trkpt lat="44.156018346002" lon="3.8337680707657813"><ele>267.5</ele><time>2026-04-03T08:41:26Z</time></trkpt><trkpt lat="44.156129364717984" lon="3.8337722553012052"><ele>267.0</ele><time>2026-04-03T08:41:27Z</time></trkpt><trkpt lat="44.15622865858516" lon="3.833821258551545"><ele>267.0</ele><time>2026-04-03T08:41:28Z</time></trkpt><trkpt lat="44.15631630247541" lon="3.833889653517783"><ele>267.0</ele><time>2026-04-03T08:41:29Z</time></trkpt><trkpt lat="44.15639337712033" lon="3.833983575489213"><ele>267.0</ele><time>2026-04-03T08:41:30Z</time></trkpt><trkpt lat="44.15644923720712" lon="3.834104563252688"><ele>267.0</ele><time>2026-04-03T08:41:31Z</time></trkpt><trkpt lat="44.15650079943691" lon="3.834241323263816"><ele>267.0</ele><time>2026-04-03T08:41:32Z</time></trkpt><trkpt lat="44.15656991602968" lon="3.834365461026587"><ele>264.5</ele><time>2026-04-03T08:41:33Z</time></trkpt><trkpt lat="44.1566659037776" lon="3.8344962229534234"><ele>262.0</ele><time>2026-04-03T08:41:34Z</time></trkpt><trkpt lat="44.156782900952436" lon="3.8346176361425126"><ele>259.5</ele><time>2026-04-03T08:41:35Z</time></trkpt><trkpt lat="44.15691039206896" lon="3.8347199565173717"><ele>257.0</ele><time>2026-04-03T08:41:36Z</time></trkpt><trkpt lat="44.157039425238146" lon="3.8348196193346618"><ele>257.0</ele><time>2026-04-03T08:41:37Z</time></trkpt><trkpt lat="44.15715966136944" lon="3.8349222071163114"><ele>257.0</ele><time>2026-04-03T08:41:38Z</time></trkpt><trkpt lat="44.15726807497258" lon="3.8350326992106285"><ele>257.0</ele><time>2026-04-03T08:41:39Z</time></trkpt><trkpt lat="44.15735884111462" lon="3.83517252043828"><ele>257.0</ele><time>2026-04-03T08:41:40Z</time></trkpt><trkpt lat="44.157428182521805" lon="3.8353426862905113"><ele>258.75</ele><time>2026-04-03T08:41:41Z</time></trkpt><trkpt lat="44.15747559816951" lon="3.835535695530252"><ele>260.5</ele><time>2026-04-03T08:41:42Z</time></trkpt><trkpt lat="44.15751679525365" lon="3.835737444145468"><ele>262.25</ele><time>2026-04-03T08:41:43Z</time></trkpt><trkpt lat="44.15756186454225" lon="3.835934796848897"><ele>264.0</ele><time>2026-04-03T08:41:44Z</time></trkpt><trkpt lat="44.157608558600316" lon="3.836122929795539"><ele>264.0</ele><time>2026-04-03T08:41:45Z</time></trkpt><trkpt lat="44.15765476181093" lon="3.836305886434734"><ele>264.0</ele><time>2026-04-03T08:41:46Z</time></trkpt><trkpt lat="44.15769665179352" lon="3.8364900342783654"><ele>264.0</ele><time>2026-04-03T08:41:47Z</time></trkpt><trkpt lat="44.157716709292494" lon="3.836691195705758"><ele>264.0</ele><time>2026-04-03T08:41:48Z</time></trkpt><trkpt lat="44.15769675962392" lon="3.8369012555895403"><ele>262.8</ele><time>2026-04-03T08:41:49Z</time></trkpt><trkpt lat="44.15766118402736" lon="3.8370862345692665"><ele>261.59999999999997</ele><time>2026-04-03T08:41:50Z</time></trkpt><trkpt lat="44.15764233865831" lon="3.837245540729024"><ele>260.4</ele><time>2026-04-03T08:41:51Z</time></trkpt><trkpt lat="44.15765813832672" lon="3.837374323619909"><ele>259.2</ele><time>2026-04-03T08:41:52Z</time></trkpt><trkpt lat="44.157717468512715" lon="3.8374626279475885"><ele>258.0</ele><time>2026-04-03T08:41:53Z</time></trkpt><trkpt lat="44.157801462265944" lon="3.837498064500075"><ele>258.0</ele><time>2026-04-03T08:41:54Z</time></trkpt><trkpt lat="44.15790898982901" lon="3.837476353347662"><ele>258.0</ele><time>2026-04-03T08:41:55Z</time></trkpt><trkpt lat="44.15804001920669" lon="3.8374044207928497"><ele>258.0</ele><time>2026-04-03T08:41:56Z</time></trkpt><trkpt lat="44.1581909559971" lon="3.8372898835781477"><ele>258.0</ele><time>2026-04-03T08:41:57Z</time></trkpt><trkpt lat="44.15834444959305" lon="3.8371434043640793"><ele>257.0</ele><time>2026-04-03T08:41:58Z</time></trkpt><trkpt lat="44.15848079262551" lon="3.8370007366604977"><ele>256.0</ele><time>2026-04-03T08:41:59Z</time></trkpt><trkpt lat="44.15862170502777" lon="3.8368609105110174"><ele>255.0</ele><time>2026-04-03T08:42:00Z</time></trkpt><trkpt lat="44.158761925281816" lon="3.836728590160037"><ele>258.3333333333333</ele><time>2026-04-03T08:42:01Z</time></trkpt><trkpt lat="44.15889877389769" lon="3.836601448240585"><ele>261.66666666666663</ele><time>2026-04-03T08:42:02Z</time></trkpt><trkpt lat="44.15902845688098" lon="3.836492960431219"><ele>265.0</ele><time>2026-04-03T08:42:03Z</time></trkpt><trkpt lat="44.15916719311548" lon="3.8364352100525974"><ele>265.0</ele><time>2026-04-03T08:42:04Z</time></trkpt><trkpt lat="44.15931031952702" lon="3.8364469997427295"><ele>265.0</ele><time>2026-04-03T08:42:05Z</time></trkpt><trkpt lat="44.15945163939681" lon="3.8365252342767895"><ele>265.0</ele><time>2026-04-03T08:42:06Z</time></trkpt><trkpt lat="44.159577562489886" lon="3.836682669132383"><ele>265.0</ele><time>2026-04-03T08:42:07Z</time></trkpt><trkpt lat="44.15973100309812" lon="3.8368399745721975"><ele>265.0</ele><time>2026-04-03T08:42:08Z</time></trkpt><trkpt lat="44.159844528598974" lon="3.83700994231119"><ele>265.0</ele><time>2026-04-03T08:42:09Z</time></trkpt><trkpt lat="44.15990803472025" lon="3.8372076901965144"><ele>265.0</ele><time>2026-04-03T08:42:10Z</time></trkpt><trkpt lat="44.15996219550467" lon="3.837439475157028"><ele>265.0</ele><time>2026-04-03T08:42:11Z</time></trkpt><trkpt lat="44.160021966961246" lon="3.8377354276634255"><ele>265.0</ele><time>2026-04-03T08:42:12Z</time></trkpt><trkpt lat="44.16008368509788" lon="3.838036407810125"><ele>264.0</ele><time>2026-04-03T08:42:13Z</time></trkpt><trkpt lat="44.16011988718688" lon="3.8382944721736956"><ele>263.0</ele><time>2026-04-03T08:42:14Z</time></trkpt><trkpt lat="44.16012775127816" lon="3.8385349063512595"><ele>262.0</ele><time>2026-04-03T08:42:15Z</time></trkpt><trkpt lat="44.16009500474847" lon="3.838746108379189"><ele>262.0</ele><time>2026-04-03T08:42:16Z</time></trkpt><trkpt lat="44.16003982327191" lon="3.8389800280152193"><ele>262.0</ele><time>2026-04-03T08:42:17Z</time></trkpt><trkpt lat="44.15997495166009" lon="3.839214074454471"><ele>262.0</ele><time>2026-04-03T08:42:18Z</time></trkpt><trkpt lat="44.159896738717265" lon="3.8394179209172488"><ele>257.0</ele><time>2026-04-03T08:42:19Z</time></trkpt><trkpt lat="44.15976442335401" lon="3.8396143076536906"><ele>252.0</ele><time>2026-04-03T08:42:20Z</time></trkpt><trkpt lat="44.159595574126385" lon="3.8398310571812133"><ele>247.0</ele><time>2026-04-03T08:42:21Z</time></trkpt><trkpt lat="44.159416979540325" lon="3.840038478233579"><ele>249.33333333333331</ele><time>2026-04-03T08:42:22Z</time></trkpt><trkpt lat="44.15925040103318" lon="3.8402163669062923"><ele>251.66666666666669</ele><time>2026-04-03T08:42:23Z</time></trkpt><trkpt lat="44.15911251211957" lon="3.840382253719133"><ele>254.0</ele><time>2026-04-03T08:42:24Z</time></trkpt><trkpt lat="44.15900083276252" lon="3.8405637008626803"><ele>249.5</ele><time>2026-04-03T08:42:25Z</time></trkpt><trkpt lat="44.158894495051335" lon="3.840729278682374"><ele>245.0</ele><time>2026-04-03T08:42:26Z</time></trkpt><trkpt lat="44.15881961641831" lon="3.840869856725507"><ele>240.5</ele><time>2026-04-03T08:42:27Z</time></trkpt><trkpt lat="44.158764288170104" lon="3.841015514274034"><ele>236.0</ele><time>2026-04-03T08:42:28Z</time></trkpt><trkpt lat="44.15876561194866" lon="3.841172094140557"><ele>235.4</ele><time>2026-04-03T08:42:29Z</time></trkpt><trkpt lat="44.15882769515877" lon="3.8413095822538135"><ele>234.8</ele><time>2026-04-03T08:42:30Z</time></trkpt><trkpt lat="44.15889901327795" lon="3.8414172849649955"><ele>234.20000000000002</ele><time>2026-04-03T08:42:31Z</time></trkpt><trkpt lat="44.15896307412234" lon="3.841493162231208"><ele>233.60000000000002</ele><time>2026-04-03T08:42:32Z</time></trkpt><trkpt lat="44.15887646050479" lon="3.841506190690632"><ele>233.0</ele><time>2026-04-03T08:42:36Z</time></trkpt><trkpt lat="44.15880649288043" lon="3.8413321716367355"><ele>233.0</ele><time>2026-04-03T08:42:37Z</time></trkpt><trkpt lat="44.15873718317143" lon="3.8411342916618656"><ele>233.0</ele><time>2026-04-03T08:42:38Z</time></trkpt><trkpt lat="44.15864571969375" lon="3.8409119880909537"><ele>233.0</ele><time>2026-04-03T08:42:39Z</time></trkpt><trkpt lat="44.15855608088311" lon="3.840762267240023"><ele>232.75</ele><time>2026-04-03T08:42:40Z</time></trkpt><trkpt lat="44.15845144161824" lon="3.8406466910599817"><ele>232.5</ele><time>2026-04-03T08:42:41Z</time></trkpt><trkpt lat="44.158341302795776" lon="3.84056180707874"><ele>232.25</ele><time>2026-04-03T08:42:42Z</time></trkpt><trkpt lat="44.15821209752053" lon="3.8405055222034883"><ele>232.0</ele><time>2026-04-03T08:42:43Z</time></trkpt><trkpt lat="44.15806652304141" lon="3.8404857880676264"><ele>232.0</ele><time>2026-04-03T08:42:44Z</time></trkpt><trkpt lat="44.15789200395833" lon="3.8405009885002346"><ele>232.0</ele><time>2026-04-03T08:42:45Z</time></trkpt><trkpt lat="44.15769716136463" lon="3.8405245207836285"><ele>232.0</ele><time>2026-04-03T08:42:46Z</time></trkpt><trkpt lat="44.15752620033161" lon="3.8405396406873002"><ele>232.0</ele><time>2026-04-03T08:42:47Z</time></trkpt><trkpt lat="44.157376188229996" lon="3.840557883492603"><ele>232.0</ele><time>2026-04-03T08:42:48Z</time></trkpt><trkpt lat="44.15723827406367" lon="3.8405558119291388"><ele>232.0</ele><time>2026-04-03T08:42:49Z</time></trkpt><trkpt lat="44.15710367790394" lon="3.8405602747172014"><ele>232.0</ele><time>2026-04-03T08:42:50Z</time></trkpt><trkpt lat="44.15699607621569" lon="3.8405492617714865"><ele>232.33333333333331</ele><time>2026-04-03T08:42:51Z</time></trkpt><trkpt lat="44.15690365572068" lon="3.840560958316631"><ele>232.66666666666666</ele><time>2026-04-03T08:42:52Z</time></trkpt><trkpt lat="44.1568292438438" lon="3.84054157471952"><ele>233.0</ele><time>2026-04-03T08:42:53Z</time></trkpt><trkpt lat="44.156790935853124" lon="3.8406355609066773"><ele>233.33333333333331</ele><time>2026-04-03T08:42:54Z</time></trkpt><trkpt lat="44.15677998495018" lon="3.8407664973422753"><ele>233.66666666666666</ele><time>2026-04-03T08:42:56Z</time></trkpt><trkpt lat="44.1567976981837" lon="3.8406762559484653"><ele>234.0</ele><time>2026-04-03T08:43:08Z</time></trkpt><trkpt lat="44.156830073028424" lon="3.840575375916572"><ele>234.0</ele><time>2026-04-03T08:43:09Z</time></trkpt><trkpt lat="44.15674495118457" lon="3.8405636073986202"><ele>234.0</ele><time>2026-04-03T08:43:10Z</time></trkpt><trkpt lat="44.15664572119391" lon="3.8404311042173642"><ele>234.0</ele><time>2026-04-03T08:43:13Z</time></trkpt><trkpt lat="44.15657071488288" lon="3.840424823572984"><ele>234.0</ele><time>2026-04-03T08:43:14Z</time></trkpt><trkpt lat="44.156495514852146" lon="3.8404171197808163"><ele>234.0</ele><time>2026-04-03T08:43:15Z</time></trkpt><trkpt lat="44.156431267048696" lon="3.840407903916402"><ele>234.0</ele><time>2026-04-03T08:43:16Z</time></trkpt><trkpt lat="44.15632624415971" lon="3.840394382791402"><ele>234.79999999999998</ele><time>2026-04-03T08:43:18Z</time></trkpt><trkpt lat="44.1562491939394" lon="3.840382982700306"><ele>235.59999999999997</ele><time>2026-04-03T08:43:20Z</time></trkpt><trkpt lat="44.15615405914549" lon="3.840361673938014"><ele>236.4</ele><time>2026-04-03T08:43:22Z</time></trkpt><trkpt lat="44.15605429857431" lon="3.840299112286146"><ele>237.2</ele><time>2026-04-03T08:43:24Z</time></trkpt><trkpt lat="44.156024607763534" lon="3.840219123482181"><ele>238.0</ele><time>2026-04-03T08:43:25Z</time></trkpt><trkpt lat="44.15597164837059" lon="3.8400909140714927"><ele>237.99999999999997</ele><time>2026-04-03T08:43:27Z</time></trkpt><trkpt lat="44.155951348085644" lon="3.839982871593588"><ele>238.0</ele><time>2026-04-03T08:43:30Z</time></trkpt><trkpt lat="44.155942637915444" lon="3.8400773308412743"><ele>238.0</ele><time>2026-04-03T08:43:37Z</time></trkpt><trkpt lat="44.1559346817389" lon="3.8401715073994525"><ele>238.0</ele><time>2026-04-03T08:43:39Z</time></trkpt><trkpt lat="44.15600555180337" lon="3.8402341068981163"><ele>237.99999999999997</ele><time>2026-04-03T08:44:00Z</time></trkpt><trkpt lat="44.15605580143389" lon="3.8403107887175967"><ele>238.0</ele><time>2026-04-03T08:44:21Z</time></trkpt><trkpt lat="44.15601710792217" lon="3.8404258830322506"><ele>238.85714285714286</ele><time>2026-04-03T08:44:27Z</time></trkpt><trkpt lat="44.15607349597073" lon="3.8404718752838978"><ele>239.71428571428572</ele><time>2026-04-03T08:44:35Z</time></trkpt><trkpt lat="44.15607178346566" lon="3.8405685423106672"><ele>240.57142857142856</ele><time>2026-04-03T08:44:48Z</time></trkpt><trkpt lat="44.15612885371802" lon="3.840530051631013"><ele>241.42857142857142</ele><time>2026-04-03T08:45:09Z</time></trkpt><trkpt lat="44.15618862360789" lon="3.8405839096902774"><ele>242.28571428571428</ele><time>2026-04-03T08:45:15Z</time></trkpt><trkpt lat="44.15624663312749" lon="3.8406199101783893"><ele>243.1428571428571</ele><time>2026-04-03T08:45:22Z</time></trkpt><trkpt lat="44.15630562005159" lon="3.8406725086579656"><ele>243.99999999999997</ele><time>2026-04-03T08:45:29Z</time></trkpt><trkpt lat="44.15635299347747" lon="3.8407527574508573"><ele>243.99999999999997</ele><time>2026-04-03T08:45:36Z</time></trkpt><trkpt lat="44.15641474083265" lon="3.8407945712112435"><ele>244.0</ele><time>2026-04-03T08:45:42Z</time></trkpt><trkpt lat="44.15647456064179" lon="3.8408240343864772"><ele>243.99999999999997</ele><time>2026-04-03T08:45:47Z</time></trkpt><trkpt lat="44.15653867188569" lon="3.8407976017953547"><ele>243.99999999999997</ele><time>2026-04-03T08:45:54Z</time></trkpt><trkpt lat="44.15658847920779" lon="3.840868649883049"><ele>244.0</ele><time>2026-04-03T08:46:02Z</time></trkpt><trkpt lat="44.15653909781603" lon="3.840794317173857"><ele>243.99999999999997</ele><time>2026-04-03T08:47:04Z</time></trkpt><trkpt lat="44.15646760267979" lon="3.8407735621217256"><ele>243.99999999999997</ele><time>2026-04-03T08:47:13Z</time></trkpt><trkpt lat="44.156408811258416" lon="3.8407390855352816"><ele>243.99999999999997</ele><time>2026-04-03T08:47:21Z</time></trkpt><trkpt lat="44.15634138754648" lon="3.840702497522599"><ele>244.0</ele><time>2026-04-03T08:47:29Z</time></trkpt><trkpt lat="44.15630642139647" lon="3.84061640760891"><ele>243.99999999999997</ele><time>2026-04-03T08:47:47Z</time></trkpt><trkpt lat="44.156259155699075" lon="3.8405482829060538"><ele>243.99999999999997</ele><time>2026-04-03T08:47:54Z</time></trkpt><trkpt lat="44.156232855066975" lon="3.8404551155741746"><ele>244.0</ele><time>2026-04-03T08:48:24Z</time></trkpt><trkpt lat="44.156177735422474" lon="3.840397431756319"><ele>243.99999999999997</ele><time>2026-04-03T08:48:30Z</time></trkpt><trkpt lat="44.15612203586714" lon="3.840335063805839"><ele>243.99999999999997</ele><time>2026-04-03T08:48:37Z</time></trkpt><trkpt lat="44.15606091883555" lon="3.8402883154513936"><ele>244.0</ele><time>2026-04-03T08:48:44Z</time></trkpt><trkpt lat="44.15600551508048" lon="3.840234480116983"><ele>243.99999999999997</ele><time>2026-04-03T08:48:50Z</time></trkpt><trkpt lat="44.15607500340883" lon="3.84031658635574"><ele>243.99999999999997</ele><time>2026-04-03T08:49:54Z</time></trkpt><trkpt lat="44.156140257752156" lon="3.8403231757529115"><ele>244.0</ele><time>2026-04-03T08:49:56Z</time></trkpt><trkpt lat="44.15622753736339" lon="3.8403386104384305"><ele>244.0</ele><time>2026-04-03T08:49:58Z</time></trkpt><trkpt lat="44.156367032405875" lon="3.8403641287887145"><ele>244.0</ele><time>2026-04-03T08:50:00Z</time></trkpt><trkpt lat="44.156478608547495" lon="3.840385250765766"><ele>243.99999999999997</ele><time>2026-04-03T08:50:01Z</time></trkpt><trkpt lat="44.156567335077185" lon="3.8404368041384433"><ele>243.99999999999997</ele><time>2026-04-03T08:50:02Z</time></trkpt><trkpt lat="44.15663997714456" lon="3.84047355576961"><ele>244.0</ele><time>2026-04-03T08:50:03Z</time></trkpt><trkpt lat="44.156747937399416" lon="3.8405356191288735"><ele>244.0</ele><time>2026-04-03T08:50:05Z</time></trkpt><trkpt lat="44.15682770903326" lon="3.8405933154860534"><ele>244.16666666666666</ele><time>2026-04-03T08:50:07Z</time></trkpt><trkpt lat="44.156817751834744" lon="3.8406986376637033"><ele>244.33333333333331</ele><time>2026-04-03T08:50:09Z</time></trkpt><trkpt lat="44.156822221406614" lon="3.840786657830473"><ele>244.5</ele><time>2026-04-03T08:50:11Z</time></trkpt><trkpt lat="44.15677804293982" lon="3.8408954829014474"><ele>244.66666666666669</ele><time>2026-04-03T08:50:13Z</time></trkpt><trkpt lat="44.156772815941764" lon="3.8409944545592594"><ele>244.83333333333334</ele><time>2026-04-03T08:50:14Z</time></trkpt><trkpt lat="44.15678714749214" lon="3.841144650943936"><ele>245.0</ele><time>2026-04-03T08:50:15Z</time></trkpt><trkpt lat="44.15683002704054" lon="3.8413218558838493"><ele>245.0</ele><time>2026-04-03T08:50:16Z</time></trkpt><trkpt lat="44.15690028146996" lon="3.841511426229072"><ele>245.0</ele><time>2026-04-03T08:50:17Z</time></trkpt><trkpt lat="44.15697707157326" lon="3.8417184224057226"><ele>245.0</ele><time>2026-04-03T08:50:18Z</time></trkpt><trkpt lat="44.157051337879366" lon="3.8419331775736048"><ele>251.66666666666669</ele><time>2026-04-03T08:50:19Z</time></trkpt><trkpt lat="44.15713297014593" lon="3.842152637678538"><ele>258.3333333333333</ele><time>2026-04-03T08:50:20Z</time></trkpt><trkpt lat="44.15721381893426" lon="3.8423722460792753"><ele>265.0</ele><time>2026-04-03T08:50:21Z</time></trkpt><trkpt lat="44.15729166777083" lon="3.84259367649879"><ele>259.3333333333333</ele><time>2026-04-03T08:50:22Z</time></trkpt><trkpt lat="44.15737142012688" lon="3.842809206621983"><ele>253.66666666666669</ele><time>2026-04-03T08:50:23Z</time></trkpt><trkpt lat="44.15746076000666" lon="3.8430397155679628"><ele>248.0</ele><time>2026-04-03T08:50:24Z</time></trkpt><trkpt lat="44.157545323813736" lon="3.843269213684865"><ele>250.66666666666669</ele><time>2026-04-03T08:50:25Z</time></trkpt><trkpt lat="44.157623080661985" lon="3.843483172707669"><ele>253.33333333333331</ele><time>2026-04-03T08:50:26Z</time></trkpt><trkpt lat="44.15769370628015" lon="3.8436703894482336"><ele>256.0</ele><time>2026-04-03T08:50:27Z</time></trkpt><trkpt lat="44.15775026251448" lon="3.84383809244718"><ele>256.0</ele><time>2026-04-03T08:50:28Z</time></trkpt><trkpt lat="44.1578044875283" lon="3.8440039867606552"><ele>256.0</ele><time>2026-04-03T08:50:29Z</time></trkpt><trkpt lat="44.1578546892516" lon="3.8441638438541723"><ele>256.0</ele><time>2026-04-03T08:50:30Z</time></trkpt><trkpt lat="44.15790744426066" lon="3.8443137758990633"><ele>256.0</ele><time>2026-04-03T08:50:31Z</time></trkpt><trkpt lat="44.15795047065341" lon="3.844459294639544"><ele>252.5</ele><time>2026-04-03T08:50:32Z</time></trkpt><trkpt lat="44.157970704689234" lon="3.844602230863067"><ele>249.0</ele><time>2026-04-03T08:50:33Z</time></trkpt><trkpt lat="44.15794782367653" lon="3.8447643165296905"><ele>245.5</ele><time>2026-04-03T08:50:34Z</time></trkpt><trkpt lat="44.15787259171553" lon="3.844880858346346"><ele>242.0</ele><time>2026-04-03T08:50:35Z</time></trkpt><trkpt lat="44.15775232160842" lon="3.8449572861883095"><ele>242.0</ele><time>2026-04-03T08:50:36Z</time></trkpt><trkpt lat="44.15760466183101" lon="3.8449589723565656"><ele>242.0</ele><time>2026-04-03T08:50:37Z</time></trkpt><trkpt lat="44.157453631981475" lon="3.8449313409263772"><ele>242.0</ele><time>2026-04-03T08:50:38Z</time></trkpt><trkpt lat="44.15728904954977" lon="3.8448948786830686"><ele>242.66666666666669</ele><time>2026-04-03T08:50:39Z</time></trkpt><trkpt lat="44.15710512475132" lon="3.8448330460074636"><ele>243.33333333333331</ele><time>2026-04-03T08:50:40Z</time></trkpt><trkpt lat="44.15688582258669" lon="3.8448159879077104"><ele>244.0</ele><time>2026-04-03T08:50:41Z</time></trkpt><trkpt lat="44.15664352733094" lon="3.844831080163135"><ele>244.0</ele><time>2026-04-03T08:50:42Z</time></trkpt><trkpt lat="44.15642837024241" lon="3.8448411343702116"><ele>244.0</ele><time>2026-04-03T08:50:43Z</time></trkpt><trkpt lat="44.15621696592639" lon="3.844839722375122"><ele>244.0</ele><time>2026-04-03T08:50:44Z</time></trkpt><trkpt lat="44.15600649065183" lon="3.844822428069286"><ele>244.0</ele><time>2026-04-03T08:50:45Z</time></trkpt><trkpt lat="44.155802535083296" lon="3.844864889946028"><ele>244.0</ele><time>2026-04-03T08:50:46Z</time></trkpt><trkpt lat="44.15560099327738" lon="3.8448839478802395"><ele>244.0</ele><time>2026-04-03T08:50:47Z</time></trkpt><trkpt lat="44.15538798416394" lon="3.8448995361578397"><ele>244.0</ele><time>2026-04-03T08:50:48Z</time></trkpt><trkpt lat="44.15511241945306" lon="3.844956276697436"><ele>244.0</ele><time>2026-04-03T08:50:49Z</time></trkpt><trkpt lat="44.15489180944503" lon="3.8450635858179782"><ele>240.33333333333331</ele><time>2026-04-03T08:50:50Z</time></trkpt><trkpt lat="44.15469514986039" lon="3.84519492029825"><ele>236.66666666666669</ele><time>2026-04-03T08:50:51Z</time></trkpt><trkpt lat="44.15453414516973" lon="3.8453394582362983"><ele>233.0</ele><time>2026-04-03T08:50:52Z</time></trkpt><trkpt lat="44.15439360215785" lon="3.845473102180953"><ele>233.0</ele><time>2026-04-03T08:50:53Z</time></trkpt><trkpt lat="44.1542639499728" lon="3.845556984365054"><ele>233.0</ele><time>2026-04-03T08:50:54Z</time></trkpt><trkpt lat="44.15414323404549" lon="3.845540249452045"><ele>233.0</ele><time>2026-04-03T08:50:55Z</time></trkpt><trkpt lat="44.15402734630096" lon="3.8454446503703736"><ele>233.0</ele><time>2026-04-03T08:50:56Z</time></trkpt><trkpt lat="44.15387242558416" lon="3.845316200576272"><ele>230.66666666666669</ele><time>2026-04-03T08:50:57Z</time></trkpt><trkpt lat="44.15371411727304" lon="3.8451879237753035"><ele>228.33333333333331</ele><time>2026-04-03T08:50:58Z</time></trkpt><trkpt lat="44.15355357556212" lon="3.8451054970455614"><ele>226.0</ele><time>2026-04-03T08:50:59Z</time></trkpt><trkpt lat="44.15339630902383" lon="3.8450644053898695"><ele>232.5</ele><time>2026-04-03T08:51:00Z</time></trkpt><trkpt lat="44.153242292787624" lon="3.845046897577749"><ele>239.0</ele><time>2026-04-03T08:51:01Z</time></trkpt><trkpt lat="44.15308898433322" lon="3.8450291079193066"><ele>245.5</ele><time>2026-04-03T08:51:02Z</time></trkpt><trkpt lat="44.15304567717437" lon="3.845126339540576"><ele>252.0</ele><time>2026-04-03T08:51:03Z</time></trkpt><trkpt lat="44.15296969345817" lon="3.8452696380794418"><ele>254.33333333333331</ele><time>2026-04-03T08:51:04Z</time></trkpt><trkpt lat="44.15289004007313" lon="3.845442835926654"><ele>256.66666666666663</ele><time>2026-04-03T08:51:05Z</time></trkpt><trkpt lat="44.1527477226724" lon="3.845557855277854"><ele>259.0</ele><time>2026-04-03T08:51:06Z</time></trkpt><trkpt lat="44.15262412819124" lon="3.8456984637157468"><ele>259.0</ele><time>2026-04-03T08:51:07Z</time></trkpt><trkpt lat="44.15252653371444" lon="3.845847996918502"><ele>259.0</ele><time>2026-04-03T08:51:08Z</time></trkpt><trkpt lat="44.152467281348535" lon="3.846061582996842"><ele>259.0</ele><time>2026-04-03T08:51:09Z</time></trkpt><trkpt lat="44.15242096008505" lon="3.8463052253748438"><ele>259.3333333333333</ele><time>2026-04-03T08:51:10Z</time></trkpt><trkpt lat="44.1523717891401" lon="3.8465437952382864"><ele>259.6666666666667</ele><time>2026-04-03T08:51:11Z</time></trkpt><trkpt lat="44.15229781671798" lon="3.846762527121229"><ele>260.0</ele><time>2026-04-03T08:51:12Z</time></trkpt><trkpt lat="44.15225316325205" lon="3.846990559533293"><ele>260.0</ele><time>2026-04-03T08:51:13Z</time></trkpt><trkpt lat="44.15220885721562" lon="3.8472029963824173"><ele>260.0</ele><time>2026-04-03T08:51:14Z</time></trkpt><trkpt lat="44.15219410129062" lon="3.84740969543272"><ele>260.0</ele><time>2026-04-03T08:51:15Z</time></trkpt><trkpt lat="44.15218962595049" lon="3.847609251988226"><ele>253.75</ele><time>2026-04-03T08:51:16Z</time></trkpt><trkpt lat="44.152139157104735" lon="3.847812295486905"><ele>247.5</ele><time>2026-04-03T08:51:17Z</time></trkpt><trkpt lat="44.15207137806036" lon="3.848008488673381"><ele>241.25</ele><time>2026-04-03T08:51:18Z</time></trkpt><trkpt lat="44.15197920564997" lon="3.8481483600129676"><ele>235.0</ele><time>2026-04-03T08:51:19Z</time></trkpt><trkpt lat="44.15186962889207" lon="3.8482289580212705"><ele>235.0</ele><time>2026-04-03T08:51:20Z</time></trkpt><trkpt lat="44.15173290675613" lon="3.848286304710267"><ele>235.0</ele><time>2026-04-03T08:51:21Z</time></trkpt><trkpt lat="44.15156816490996" lon="3.848298592945373"><ele>235.0</ele><time>2026-04-03T08:51:22Z</time></trkpt><trkpt lat="44.15142583885903" lon="3.848243713281096"><ele>235.0</ele><time>2026-04-03T08:51:23Z</time></trkpt><trkpt lat="44.15127343631168" lon="3.8481690064048983"><ele>235.0</ele><time>2026-04-03T08:51:24Z</time></trkpt><trkpt lat="44.15114081885993" lon="3.848146586249197"><ele>235.0</ele><time>2026-04-03T08:51:25Z</time></trkpt><trkpt lat="44.15101431268909" lon="3.8482439821495102"><ele>235.0</ele><time>2026-04-03T08:51:26Z</time></trkpt><trkpt lat="44.15086109762226" lon="3.848327654829409"><ele>235.0</ele><time>2026-04-03T08:51:27Z</time></trkpt><trkpt lat="44.150685105391524" lon="3.848328532969316"><ele>235.0</ele><time>2026-04-03T08:51:28Z</time></trkpt><trkpt lat="44.150516948926104" lon="3.84839213564754"><ele>235.0</ele><time>2026-04-03T08:51:29Z</time></trkpt><trkpt lat="44.15032918211475" lon="3.8484893826847717"><ele>235.0</ele><time>2026-04-03T08:51:30Z</time></trkpt><trkpt lat="44.150163876336585" lon="3.848579843731609"><ele>235.0</ele><time>2026-04-03T08:51:31Z</time></trkpt><trkpt lat="44.15001824806634" lon="3.8486603786207665"><ele>235.0</ele><time>2026-04-03T08:51:32Z</time></trkpt><trkpt lat="44.14989707625307" lon="3.8487778639460517"><ele>251.0</ele><time>2026-04-03T08:51:33Z</time></trkpt><trkpt lat="44.14978724259963" lon="3.8489583754909424"><ele>267.0</ele><time>2026-04-03T08:51:34Z</time></trkpt><trkpt lat="44.14969172569786" lon="3.849143433168445"><ele>283.0</ele><time>2026-04-03T08:51:35Z</time></trkpt><trkpt lat="44.14960572286279" lon="3.8492915572687525"><ele>281.0</ele><time>2026-04-03T08:51:36Z</time></trkpt><trkpt lat="44.1495301084877" lon="3.849432052565883"><ele>279.0</ele><time>2026-04-03T08:51:37Z</time></trkpt><trkpt lat="44.14948519712773" lon="3.8496004453240245"><ele>277.0</ele><time>2026-04-03T08:51:38Z</time></trkpt><trkpt lat="44.14949610044663" lon="3.8498086509786953"><ele>275.0</ele><time>2026-04-03T08:51:39Z</time></trkpt><trkpt lat="44.14953288451198" lon="3.850059298442286"><ele>275.75</ele><time>2026-04-03T08:51:40Z</time></trkpt><trkpt lat="44.14953185625809" lon="3.8502701532064725"><ele>276.5</ele><time>2026-04-03T08:51:41Z</time></trkpt><trkpt lat="44.14956439615253" lon="3.8504588447752206"><ele>277.25</ele><time>2026-04-03T08:51:42Z</time></trkpt><trkpt lat="44.14964300215513" lon="3.8506212102705706"><ele>278.0</ele><time>2026-04-03T08:51:43Z</time></trkpt><trkpt lat="44.1497341683719" lon="3.8507677269258322"><ele>278.0</ele><time>2026-04-03T08:51:44Z</time></trkpt><trkpt lat="44.14974839134026" lon="3.8509485583671914"><ele>278.0</ele><time>2026-04-03T08:51:45Z</time></trkpt><trkpt lat="44.14978129403775" lon="3.851127780708583"><ele>278.0</ele><time>2026-04-03T08:51:46Z</time></trkpt><trkpt lat="44.149838918247966" lon="3.8513234998565373"><ele>278.0</ele><time>2026-04-03T08:51:47Z</time></trkpt><trkpt lat="44.14994638152539" lon="3.851530264237831"><ele>277.0</ele><time>2026-04-03T08:51:48Z</time></trkpt><trkpt lat="44.150068075836664" lon="3.851731132465557"><ele>276.0</ele><time>2026-04-03T08:51:49Z</time></trkpt><trkpt lat="44.150193775118005" lon="3.851912789872072"><ele>275.0</ele><time>2026-04-03T08:51:50Z</time></trkpt><trkpt lat="44.1503293684201" lon="3.8520718306754835"><ele>275.0</ele><time>2026-04-03T08:51:51Z</time></trkpt><trkpt lat="44.150467739724576" lon="3.852208959631333"><ele>275.0</ele><time>2026-04-03T08:51:52Z</time></trkpt><trkpt lat="44.150615244404285" lon="3.8523207663048673"><ele>275.0</ele><time>2026-04-03T08:51:53Z</time></trkpt><trkpt lat="44.150763231448096" lon="3.85242445986374"><ele>266.33333333333337</ele><time>2026-04-03T08:51:54Z</time></trkpt><trkpt lat="44.15090391309291" lon="3.8525278914175343"><ele>257.6666666666667</ele><time>2026-04-03T08:51:55Z</time></trkpt><trkpt lat="44.15103500417606" lon="3.852636477610442"><ele>249.0</ele><time>2026-04-03T08:51:56Z</time></trkpt><trkpt lat="44.15116888114175" lon="3.8527369347902143"><ele>249.0</ele><time>2026-04-03T08:51:57Z</time></trkpt><trkpt lat="44.15132756144542" lon="3.8528229741103637"><ele>249.0</ele><time>2026-04-03T08:51:58Z</time></trkpt><trkpt lat="44.15147232018258" lon="3.8528721527294394"><ele>249.0</ele><time>2026-04-03T08:51:59Z</time></trkpt><trkpt lat="44.15159183046792" lon="3.852922147212457"><ele>249.0</ele><time>2026-04-03T08:52:00Z</time></trkpt><trkpt lat="44.15168308701182" lon="3.853009023389206"><ele>249.0</ele><time>2026-04-03T08:52:01Z</time></trkpt><trkpt lat="44.151747308789574" lon="3.853121227982649"><ele>249.0</ele><time>2026-04-03T08:52:02Z</time></trkpt><trkpt lat="44.15175715570482" lon="3.8532478370706182"><ele>249.0</ele><time>2026-04-03T08:52:03Z</time></trkpt><trkpt lat="44.151723859241486" lon="3.8533498124951127"><ele>249.0</ele><time>2026-04-03T08:52:04Z</time></trkpt><trkpt lat="44.151639791704156" lon="3.8533807929828146"><ele>249.0</ele><time>2026-04-03T08:52:05Z</time></trkpt><trkpt lat="44.15155378852665" lon="3.853386743038032"><ele>249.0</ele><time>2026-04-03T08:52:06Z</time></trkpt><trkpt lat="44.15143651264901" lon="3.853361027519391"><ele>249.0</ele><time>2026-04-03T08:52:07Z</time></trkpt><trkpt lat="44.15127367376581" lon="3.8533149824041377"><ele>249.0</ele><time>2026-04-03T08:52:08Z</time></trkpt><trkpt lat="44.15108836040497" lon="3.853267358031218"><ele>249.0</ele><time>2026-04-03T08:52:09Z</time></trkpt><trkpt lat="44.15086815129209" lon="3.8532717196477644"><ele>255.66666666666669</ele><time>2026-04-03T08:52:10Z</time></trkpt><trkpt lat="44.15065629009749" lon="3.853296445143551"><ele>262.33333333333337</ele><time>2026-04-03T08:52:11Z</time></trkpt><trkpt lat="44.15045100995267" lon="3.853336025100184"><ele>269.0</ele><time>2026-04-03T08:52:12Z</time></trkpt><trkpt lat="44.15026388150482" lon="3.8533965177214653"><ele>269.0</ele><time>2026-04-03T08:52:13Z</time></trkpt><trkpt lat="44.1500837492546" lon="3.853424403304633"><ele>269.0</ele><time>2026-04-03T08:52:14Z</time></trkpt><trkpt lat="44.149923628095564" lon="3.853498088662792"><ele>269.0</ele><time>2026-04-03T08:52:15Z</time></trkpt><trkpt lat="44.14979129828088" lon="3.8535874979967017"><ele>271.33333333333337</ele><time>2026-04-03T08:52:16Z</time></trkpt><trkpt lat="44.149694973375155" lon="3.8537603373326066"><ele>273.6666666666667</ele><time>2026-04-03T08:52:17Z</time></trkpt><trkpt lat="44.14959101466609" lon="3.85397092231404"><ele>276.0</ele><time>2026-04-03T08:52:18Z</time></trkpt><trkpt lat="44.14949342831526" lon="3.854193857756059"><ele>272.0</ele><time>2026-04-03T08:52:19Z</time></trkpt><trkpt lat="44.149410871267385" lon="3.8544036853452943"><ele>268.0</ele><time>2026-04-03T08:52:20Z</time></trkpt><trkpt lat="44.14934336730703" lon="3.8546025310583056"><ele>264.0</ele><time>2026-04-03T08:52:21Z</time></trkpt><trkpt lat="44.14930438467263" lon="3.8548199600854804"><ele>264.0</ele><time>2026-04-03T08:52:22Z</time></trkpt><trkpt lat="44.14930290754228" lon="3.855054666640478"><ele>264.0</ele><time>2026-04-03T08:52:23Z</time></trkpt><trkpt lat="44.149313275068025" lon="3.855290529413563"><ele>264.0</ele><time>2026-04-03T08:52:24Z</time></trkpt><trkpt lat="44.1493224556996" lon="3.8555213283878103"><ele>264.6666666666667</ele><time>2026-04-03T08:52:25Z</time></trkpt><trkpt lat="44.14936528228638" lon="3.8557520407624644"><ele>265.33333333333337</ele><time>2026-04-03T08:52:26Z</time></trkpt><trkpt lat="44.14945379041422" lon="3.855983631503098"><ele>266.0</ele><time>2026-04-03T08:52:27Z</time></trkpt><trkpt lat="44.149552905039016" lon="3.856192933128984"><ele>266.33333333333337</ele><time>2026-04-03T08:52:28Z</time></trkpt><trkpt lat="44.14962807329232" lon="3.8563715139477472"><ele>266.6666666666667</ele><time>2026-04-03T08:52:29Z</time></trkpt><trkpt lat="44.14963426832107" lon="3.856583371215439"><ele>267.0</ele><time>2026-04-03T08:52:30Z</time></trkpt><trkpt lat="44.149632271292376" lon="3.856846517161593"><ele>264.0</ele><time>2026-04-03T08:52:31Z</time></trkpt><trkpt lat="44.149632660401295" lon="3.857139942516397"><ele>261.0</ele><time>2026-04-03T08:52:32Z</time></trkpt><trkpt lat="44.149627224154266" lon="3.857397419660839"><ele>258.0</ele><time>2026-04-03T08:52:33Z</time></trkpt><trkpt lat="44.14960136961219" lon="3.8576171563733856"><ele>249.0</ele><time>2026-04-03T08:52:34Z</time></trkpt><trkpt lat="44.14953103837719" lon="3.857795865161267"><ele>240.0</ele><time>2026-04-03T08:52:35Z</time></trkpt><trkpt lat="44.14940301639231" lon="3.8579260740031236"><ele>231.0</ele><time>2026-04-03T08:52:36Z</time></trkpt><trkpt lat="44.149226346969485" lon="3.8580542149328125"><ele>238.5</ele><time>2026-04-03T08:52:37Z</time></trkpt><trkpt lat="44.14901271449624" lon="3.85816762711815"><ele>246.0</ele><time>2026-04-03T08:52:38Z</time></trkpt><trkpt lat="44.14877400595544" lon="3.858280180553998"><ele>246.0</ele><time>2026-04-03T08:52:39Z</time></trkpt><trkpt lat="44.14856831989446" lon="3.8583896243547926"><ele>246.0</ele><time>2026-04-03T08:52:40Z</time></trkpt><trkpt lat="44.14838957091558" lon="3.85849840191143"><ele>246.0</ele><time>2026-04-03T08:52:41Z</time></trkpt><trkpt lat="44.14825037491493" lon="3.8586094442180783"><ele>237.33333333333331</ele><time>2026-04-03T08:52:42Z</time></trkpt><trkpt lat="44.14812068332064" lon="3.858713592112423"><ele>228.66666666666666</ele><time>2026-04-03T08:52:43Z</time></trkpt><trkpt lat="44.14797607369558" lon="3.858752940184559"><ele>220.0</ele><time>2026-04-03T08:52:44Z</time></trkpt><trkpt lat="44.14779546809971" lon="3.858655807973484"><ele>220.0</ele><time>2026-04-03T08:52:45Z</time></trkpt><trkpt lat="44.14757423776831" lon="3.858613641881317"><ele>220.0</ele><time>2026-04-03T08:52:46Z</time></trkpt><trkpt lat="44.14732218723037" lon="3.8585925763653224"><ele>219.5</ele><time>2026-04-03T08:52:47Z</time></trkpt><trkpt lat="44.14708289027577" lon="3.8585666084184878"><ele>219.0</ele><time>2026-04-03T08:52:48Z</time></trkpt><trkpt lat="44.14687285630408" lon="3.8585578202379884"><ele>219.0</ele><time>2026-04-03T08:52:49Z</time></trkpt><trkpt lat="44.14667495673323" lon="3.8585390718638504"><ele>219.0</ele><time>2026-04-03T08:52:50Z</time></trkpt><trkpt lat="44.14648778594253" lon="3.858503567080179"><ele>219.0</ele><time>2026-04-03T08:52:51Z</time></trkpt><trkpt lat="44.14632123249396" lon="3.858423243678866"><ele>221.66666666666669</ele><time>2026-04-03T08:52:52Z</time></trkpt><trkpt lat="44.14615787457547" lon="3.8583763589379454"><ele>224.33333333333334</ele><time>2026-04-03T08:52:53Z</time></trkpt><trkpt lat="44.14600590578503" lon="3.8583032445708105"><ele>227.0</ele><time>2026-04-03T08:52:54Z</time></trkpt><trkpt lat="44.14585937322926" lon="3.858245313384371"><ele>227.0</ele><time>2026-04-03T08:52:55Z</time></trkpt><trkpt lat="44.145727290639734" lon="3.8581912329559636"><ele>227.0</ele><time>2026-04-03T08:52:56Z</time></trkpt><trkpt lat="44.14560938380605" lon="3.858146525875009"><ele>227.0</ele><time>2026-04-03T08:52:57Z</time></trkpt><trkpt lat="44.14549398230067" lon="3.85809790336213"><ele>227.0</ele><time>2026-04-03T08:52:58Z</time></trkpt><trkpt lat="44.14538807140552" lon="3.858045883747205"><ele>225.8</ele><time>2026-04-03T08:52:59Z</time></trkpt><trkpt lat="44.145298561401496" lon="3.8579983740532655"><ele>224.6</ele><time>2026-04-03T08:53:00Z</time></trkpt><trkpt lat="44.145216253449455" lon="3.8579494948576984"><ele>223.40000000000003</ele><time>2026-04-03T08:53:01Z</time></trkpt><trkpt lat="44.14513738352557" lon="3.857904172884208"><ele>222.20000000000002</ele><time>2026-04-03T08:53:02Z</time></trkpt><trkpt lat="44.14504738954671" lon="3.857859608690237"><ele>221.0</ele><time>2026-04-03T08:53:03Z</time></trkpt><trkpt lat="44.14494520015937" lon="3.8578082115639867"><ele>222.20000000000002</ele><time>2026-04-03T08:53:04Z</time></trkpt><trkpt lat="44.14484562018029" lon="3.8577277450656595"><ele>223.40000000000003</ele><time>2026-04-03T08:53:05Z</time></trkpt><trkpt lat="44.14473578421156" lon="3.857670581421415"><ele>224.6</ele><time>2026-04-03T08:53:06Z</time></trkpt><trkpt lat="44.144644193925195" lon="3.8575864257669537"><ele>225.8</ele><time>2026-04-03T08:53:07Z</time></trkpt><trkpt lat="44.14455419834129" lon="3.857527933030671"><ele>227.0</ele><time>2026-04-03T08:53:08Z</time></trkpt><trkpt lat="44.14445769864091" lon="3.857529612261444"><ele>227.0</ele><time>2026-04-03T08:53:09Z</time></trkpt><trkpt lat="44.14437144271723" lon="3.8575981961836407"><ele>227.0</ele><time>2026-04-03T08:53:10Z</time></trkpt><trkpt lat="44.144302964492496" lon="3.8577160051380353"><ele>227.0</ele><time>2026-04-03T08:53:11Z</time></trkpt><trkpt lat="44.14425639018601" lon="3.8578621101813932"><ele>227.0</ele><time>2026-04-03T08:53:12Z</time></trkpt><trkpt lat="44.14421882751579" lon="3.8580249735534244"><ele>227.0</ele><time>2026-04-03T08:53:13Z</time></trkpt><trkpt lat="44.144171449156666" lon="3.858168185577047"><ele>227.0</ele><time>2026-04-03T08:53:14Z</time></trkpt><trkpt lat="44.14408262415488" lon="3.8583197808535994"><ele>227.0</ele><time>2026-04-03T08:53:15Z</time></trkpt><trkpt lat="44.14394816655679" lon="3.858413996932703"><ele>227.0</ele><time>2026-04-03T08:53:16Z</time></trkpt><trkpt lat="44.14382670129557" lon="3.858530792266456"><ele>227.0</ele><time>2026-04-03T08:53:17Z</time></trkpt><trkpt lat="44.14373199046966" lon="3.85867624894533"><ele>237.0</ele><time>2026-04-03T08:53:18Z</time></trkpt><trkpt lat="44.14365002411175" lon="3.8588556251389705"><ele>247.0</ele><time>2026-04-03T08:53:19Z</time></trkpt><trkpt lat="44.14359808736314" lon="3.8590759835038404"><ele>257.0</ele><time>2026-04-03T08:53:20Z</time></trkpt><trkpt lat="44.14356526920435" lon="3.859318101502697"><ele>258.33333333333337</ele><time>2026-04-03T08:53:21Z</time></trkpt><trkpt lat="44.14354363709152" lon="3.8595444666299557"><ele>259.6666666666667</ele><time>2026-04-03T08:53:22Z</time></trkpt><trkpt lat="44.14354781534045" lon="3.859746689076424"><ele>261.0</ele><time>2026-04-03T08:53:23Z</time></trkpt><trkpt lat="44.14358814019062" lon="3.859937266260894"><ele>267.6666666666667</ele><time>2026-04-03T08:53:24Z</time></trkpt><trkpt lat="44.14364861092066" lon="3.8601350060201733"><ele>274.33333333333337</ele><time>2026-04-03T08:53:25Z</time></trkpt><trkpt lat="44.14372208285642" lon="3.8603307621855127"><ele>281.0</ele><time>2026-04-03T08:53:26Z</time></trkpt><trkpt lat="44.14379479849495" lon="3.8605155701844893"><ele>281.0</ele><time>2026-04-03T08:53:27Z</time></trkpt><trkpt lat="44.1438919788209" lon="3.8606762383862474"><ele>281.0</ele><time>2026-04-03T08:53:28Z</time></trkpt><trkpt lat="44.14402752890214" lon="3.860824885475017"><ele>281.0</ele><time>2026-04-03T08:53:29Z</time></trkpt><trkpt lat="44.14418191195909" lon="3.8609718766170196"><ele>274.6666666666667</ele><time>2026-04-03T08:53:30Z</time></trkpt><trkpt lat="44.14433908820899" lon="3.861113936686233"><ele>268.3333333333333</ele><time>2026-04-03T08:53:31Z</time></trkpt><trkpt lat="44.14448666527926" lon="3.861255403616964"><ele>262.0</ele><time>2026-04-03T08:53:32Z</time></trkpt><trkpt lat="44.14462960005723" lon="3.8614087645790036"><ele>262.0</ele><time>2026-04-03T08:53:33Z</time></trkpt><trkpt lat="44.14477490519586" lon="3.861560246746793"><ele>262.0</ele><time>2026-04-03T08:53:34Z</time></trkpt><trkpt lat="44.14492351413876" lon="3.8616943832240347"><ele>262.0</ele><time>2026-04-03T08:53:35Z</time></trkpt><trkpt lat="44.14507058920598" lon="3.8618129170135975"><ele>258.0</ele><time>2026-04-03T08:53:36Z</time></trkpt><trkpt lat="44.14521023417465" lon="3.861917191106297"><ele>254.0</ele><time>2026-04-03T08:53:37Z</time></trkpt><trkpt lat="44.14534125508803" lon="3.8620171225174116"><ele>250.0</ele><time>2026-04-03T08:53:38Z</time></trkpt><trkpt lat="44.145455927857014" lon="3.862166000522122"><ele>250.0</ele><time>2026-04-03T08:53:39Z</time></trkpt><trkpt lat="44.14554195007685" lon="3.8623718098526028"><ele>250.0</ele><time>2026-04-03T08:53:40Z</time></trkpt><trkpt lat="44.14557923771337" lon="3.8625801965574014"><ele>250.0</ele><time>2026-04-03T08:53:41Z</time></trkpt><trkpt lat="44.145568695237145" lon="3.862762124191705"><ele>248.75</ele><time>2026-04-03T08:53:42Z</time></trkpt><trkpt lat="44.145508119575545" lon="3.8629234208301986"><ele>247.5</ele><time>2026-04-03T08:53:43Z</time></trkpt><trkpt lat="44.14542317950727" lon="3.8630863916191434"><ele>246.25</ele><time>2026-04-03T08:53:44Z</time></trkpt><trkpt lat="44.14534099148311" lon="3.863260443517613"><ele>245.0</ele><time>2026-04-03T08:53:45Z</time></trkpt><trkpt lat="44.14526209594991" lon="3.863455375784851"><ele>247.0</ele><time>2026-04-03T08:53:46Z</time></trkpt><trkpt lat="44.14516025632115" lon="3.8636279586151936"><ele>249.0</ele><time>2026-04-03T08:53:47Z</time></trkpt><trkpt lat="44.14502174126775" lon="3.8637636415908116"><ele>251.0</ele><time>2026-04-03T08:53:48Z</time></trkpt><trkpt lat="44.144867948939" lon="3.8639090794436606"><ele>251.0</ele><time>2026-04-03T08:53:49Z</time></trkpt><trkpt lat="44.144699910362455" lon="3.8641255631980074"><ele>251.0</ele><time>2026-04-03T08:53:50Z</time></trkpt><trkpt lat="44.14450293381815" lon="3.864345613520349"><ele>237.0</ele><time>2026-04-03T08:53:51Z</time></trkpt><trkpt lat="44.144316329280116" lon="3.864545921856906"><ele>223.0</ele><time>2026-04-03T08:53:52Z</time></trkpt><trkpt lat="44.144126549599946" lon="3.8647039841670234"><ele>225.33333333333331</ele><time>2026-04-03T08:53:53Z</time></trkpt><trkpt lat="44.14394945851699" lon="3.8648624332482515"><ele>227.66666666666669</ele><time>2026-04-03T08:53:54Z</time></trkpt><trkpt lat="44.14378917041424" lon="3.8650027292894613"><ele>230.0</ele><time>2026-04-03T08:53:55Z</time></trkpt><trkpt lat="44.14363902509878" lon="3.8650729729902418"><ele>230.0</ele><time>2026-04-03T08:53:56Z</time></trkpt><trkpt lat="44.143486382088106" lon="3.8650664362277247"><ele>230.0</ele><time>2026-04-03T08:53:57Z</time></trkpt><trkpt lat="44.14335071578971" lon="3.8650263588738336"><ele>230.0</ele><time>2026-04-03T08:53:58Z</time></trkpt><trkpt lat="44.14323861134317" lon="3.8650261158832855"><ele>230.0</ele><time>2026-04-03T08:53:59Z</time></trkpt><trkpt lat="44.14307322936884" lon="3.8651677674203393"><ele>231.75</ele><time>2026-04-03T08:54:00Z</time></trkpt><trkpt lat="44.14300093604069" lon="3.8652978026843394"><ele>233.5</ele><time>2026-04-03T08:54:01Z</time></trkpt><trkpt lat="44.142975238856565" lon="3.8654460413431626"><ele>235.25</ele><time>2026-04-03T08:54:02Z</time></trkpt><trkpt lat="44.14295738742834" lon="3.8656208045682727"><ele>237.0</ele><time>2026-04-03T08:54:03Z</time></trkpt><trkpt lat="44.142904649800215" lon="3.8657888997792385"><ele>237.0</ele><time>2026-04-03T08:54:04Z</time></trkpt><trkpt lat="44.142799053243415" lon="3.8658931506603476"><ele>237.0</ele><time>2026-04-03T08:54:05Z</time></trkpt><trkpt lat="44.14269725074864" lon="3.8659898948081834"><ele>237.0</ele><time>2026-04-03T08:54:06Z</time></trkpt><trkpt lat="44.14257793133972" lon="3.8660961084840237"><ele>237.0</ele><time>2026-04-03T08:54:07Z</time></trkpt><trkpt lat="44.14245207472702" lon="3.866259827789635"><ele>243.0</ele><time>2026-04-03T08:54:08Z</time></trkpt><trkpt lat="44.14232193100572" lon="3.8664529736324433"><ele>249.0</ele><time>2026-04-03T08:54:09Z</time></trkpt><trkpt lat="44.14219298894273" lon="3.866682033082332"><ele>255.0</ele><time>2026-04-03T08:54:10Z</time></trkpt><trkpt lat="44.14207548118787" lon="3.8668970830618488"><ele>255.0</ele><time>2026-04-03T08:54:11Z</time></trkpt><trkpt lat="44.14196629974611" lon="3.8671169346199328"><ele>255.0</ele><time>2026-04-03T08:54:12Z</time></trkpt><trkpt lat="44.14186903983921" lon="3.867350165183738"><ele>255.0</ele><time>2026-04-03T08:54:13Z</time></trkpt><trkpt lat="44.14177550050252" lon="3.867575865658338"><ele>251.0</ele><time>2026-04-03T08:54:14Z</time></trkpt><trkpt lat="44.14170910871798" lon="3.8678267649706872"><ele>247.0</ele><time>2026-04-03T08:54:15Z</time></trkpt><trkpt lat="44.14165997684398" lon="3.8681118952031857"><ele>243.0</ele><time>2026-04-03T08:54:16Z</time></trkpt><trkpt lat="44.14161781337907" lon="3.8683798772231195"><ele>243.0</ele><time>2026-04-03T08:54:17Z</time></trkpt><trkpt lat="44.14160073039913" lon="3.868625955536816"><ele>243.0</ele><time>2026-04-03T08:54:18Z</time></trkpt><trkpt lat="44.141617958390285" lon="3.8688812586025607"><ele>243.0</ele><time>2026-04-03T08:54:19Z</time></trkpt><trkpt lat="44.14166676468501" lon="3.8691291868427893"><ele>242.75</ele><time>2026-04-03T08:54:20Z</time></trkpt><trkpt lat="44.1417330684098" lon="3.8693582094371934"><ele>242.5</ele><time>2026-04-03T08:54:21Z</time></trkpt><trkpt lat="44.14179177080148" lon="3.869536853484068"><ele>242.25</ele><time>2026-04-03T08:54:22Z</time></trkpt><trkpt lat="44.14183585928665" lon="3.8696796044415165"><ele>242.0</ele><time>2026-04-03T08:54:23Z</time></trkpt><trkpt lat="44.14186888207724" lon="3.8697885733977087"><ele>242.0</ele><time>2026-04-03T08:54:24Z</time></trkpt><trkpt lat="44.14184022653637" lon="3.869924350722979"><ele>242.0</ele><time>2026-04-03T08:54:26Z</time></trkpt><trkpt lat="44.14179651055282" lon="3.8700084523704334"><ele>242.0</ele><time>2026-04-03T08:54:29Z</time></trkpt><trkpt lat="44.14191279896673" lon="3.8700885231782576"><ele>242.0</ele><time>2026-04-03T08:54:32Z</time></trkpt><trkpt lat="44.14198048980859" lon="3.8700552120996745"><ele>242.0</ele><time>2026-04-03T08:54:34Z</time></trkpt><trkpt lat="44.142064949562034" lon="3.870046382986557"><ele>242.0</ele><time>2026-04-03T08:54:36Z</time></trkpt><trkpt lat="44.14215239621815" lon="3.870048332028083"><ele>242.0</ele><time>2026-04-03T08:54:38Z</time></trkpt><trkpt lat="44.14223761623817" lon="3.870070362523247"><ele>242.0</ele><time>2026-04-03T08:54:40Z</time></trkpt><trkpt lat="44.1423002876094" lon="3.8701384836554062"><ele>242.0</ele><time>2026-04-03T08:54:42Z</time></trkpt><trkpt lat="44.142416364527385" lon="3.870221506522724"><ele>242.0</ele><time>2026-04-03T08:54:44Z</time></trkpt><trkpt lat="44.14248634352592" lon="3.8702523944593272"><ele>237.33333333333334</ele><time>2026-04-03T08:54:45Z</time></trkpt><trkpt lat="44.14255766212219" lon="3.8702915456808764"><ele>232.66666666666669</ele><time>2026-04-03T08:54:46Z</time></trkpt><trkpt lat="44.14262358472165" lon="3.870349616459829"><ele>228.0</ele><time>2026-04-03T08:54:47Z</time></trkpt><trkpt lat="44.142694923549556" lon="3.8704113993873945"><ele>223.33333333333331</ele><time>2026-04-03T08:54:48Z</time></trkpt><trkpt lat="44.142755680637926" lon="3.870469620052452"><ele>218.66666666666666</ele><time>2026-04-03T08:54:49Z</time></trkpt><trkpt lat="44.142830727581526" lon="3.8705645111409814"><ele>214.0</ele><time>2026-04-03T08:54:51Z</time></trkpt><trkpt lat="44.14286598670054" lon="3.8707045471369024"><ele>214.0</ele><time>2026-04-03T08:54:53Z</time></trkpt><trkpt lat="44.142824607182725" lon="3.870831770567749"><ele>213.99999999999997</ele><time>2026-04-03T08:54:55Z</time></trkpt><trkpt lat="44.14271631902272" lon="3.8708677525136155"><ele>213.99999999999997</ele><time>2026-04-03T08:54:57Z</time></trkpt><trkpt lat="44.1425894811168" lon="3.870839577893875"><ele>214.0</ele><time>2026-04-03T08:54:59Z</time></trkpt><trkpt lat="44.14251287356131" lon="3.8708225976715354"><ele>214.0</ele><time>2026-04-03T08:55:00Z</time></trkpt><trkpt lat="44.14242712589839" lon="3.8708020488902717"><ele>215.00000000000003</ele><time>2026-04-03T08:55:01Z</time></trkpt><trkpt lat="44.14235806149128" lon="3.8707776150535254"><ele>216.0</ele><time>2026-04-03T08:55:02Z</time></trkpt><trkpt lat="44.14228963768995" lon="3.8707676964221047"><ele>217.0</ele><time>2026-04-03T08:55:03Z</time></trkpt><trkpt lat="44.142221623965085" lon="3.8707727363387177"><ele>218.0</ele><time>2026-04-03T08:55:04Z</time></trkpt><trkpt lat="44.142128365864586" lon="3.870798135044688"><ele>219.0</ele><time>2026-04-03T08:55:05Z</time></trkpt><trkpt lat="44.14220084206755" lon="3.8708092898944657"><ele>220.00000000000003</ele><time>2026-04-03T08:55:15Z</time></trkpt><trkpt lat="44.142142914811686" lon="3.8707705901647733"><ele>221.0</ele><time>2026-04-03T08:55:39Z</time></trkpt><trkpt lat="44.14208028285999" lon="3.870785222351005"><ele>221.00000000000003</ele><time>2026-04-03T08:55:45Z</time></trkpt><trkpt lat="44.14200070853534" lon="3.870757540093678"><ele>221.0</ele><time>2026-04-03T08:55:51Z</time></trkpt><trkpt lat="44.14193439596922" lon="3.8707472638377993"><ele>221.0</ele><time>2026-04-03T08:55:55Z</time></trkpt><trkpt lat="44.14187656520998" lon="3.8707920793619617"><ele>221.0</ele><time>2026-04-03T08:56:00Z</time></trkpt><trkpt lat="44.14185485200752" lon="3.870879807661564"><ele>221.0</ele><time>2026-04-03T08:56:08Z</time></trkpt><trkpt lat="44.14191957023449" lon="3.8709339033756107"><ele>221.00000000000003</ele><time>2026-04-03T08:56:13Z</time></trkpt><trkpt lat="44.141993704747094" lon="3.870957703474229"><ele>221.0</ele><time>2026-04-03T08:56:18Z</time></trkpt><trkpt lat="44.14206272283147" lon="3.870953697325396"><ele>219.2857142857143</ele><time>2026-04-03T08:56:25Z</time></trkpt><trkpt lat="44.14211680125646" lon="3.8710052497394862"><ele>217.57142857142858</ele><time>2026-04-03T08:56:30Z</time></trkpt><trkpt lat="44.14216659559725" lon="3.8710764312383255"><ele>215.85714285714286</ele><time>2026-04-03T08:56:40Z</time></trkpt><trkpt lat="44.142175372031005" lon="3.8711731451328926"><ele>214.14285714285717</ele><time>2026-04-03T08:56:47Z</time></trkpt><trkpt lat="44.1422078269795" lon="3.8712516443853198"><ele>212.42857142857142</ele><time>2026-04-03T08:56:54Z</time></trkpt><trkpt lat="44.14225603857934" lon="3.871312037365328"><ele>210.71428571428572</ele><time>2026-04-03T08:57:02Z</time></trkpt><trkpt lat="44.14228119956161" lon="3.8713956656313027"><ele>209.0</ele><time>2026-04-03T08:57:12Z</time></trkpt><trkpt lat="44.14231422232794" lon="3.8714839597788546"><ele>209.0</ele><time>2026-04-03T08:57:34Z</time></trkpt><trkpt lat="44.14237786956355" lon="3.8714875128918944"><ele>209.0</ele><time>2026-04-03T08:58:14Z</time></trkpt><trkpt lat="44.14245355818582" lon="3.8714724214186904"><ele>209.0</ele><time>2026-04-03T08:58:22Z</time></trkpt><trkpt lat="44.142398626617656" lon="3.8713977319104163"><ele>209.0</ele><time>2026-04-03T08:58:39Z</time></trkpt><trkpt lat="44.142338753197315" lon="3.8713515852265217"><ele>209.0</ele><time>2026-04-03T08:58:45Z</time></trkpt><trkpt lat="44.14227717086616" lon="3.8713080291945703"><ele>209.0</ele><time>2026-04-03T08:59:19Z</time></trkpt><trkpt lat="44.14221525477687" lon="3.871281264050338"><ele>209.0</ele><time>2026-04-03T09:00:43Z</time></trkpt><trkpt lat="44.142184960716904" lon="3.8711744752397665"><ele>209.0</ele><time>2026-04-03T09:00:49Z</time></trkpt><trkpt lat="44.14219095214827" lon="3.8710792259438636"><ele>209.0</ele><time>2026-04-03T09:00:55Z</time></trkpt><trkpt lat="44.14214960997881" lon="3.871005593045211"><ele>209.0</ele><time>2026-04-03T09:00:58Z</time></trkpt><trkpt lat="44.14208630102583" lon="3.870970648562388"><ele>209.0</ele><time>2026-04-03T09:01:02Z</time></trkpt><trkpt lat="44.14201177220646" lon="3.870959059679536"><ele>209.0</ele><time>2026-04-03T09:01:07Z</time></trkpt><trkpt lat="44.141946282311125" lon="3.8709549317289964"><ele>209.0</ele><time>2026-04-03T09:01:14Z</time></trkpt><trkpt lat="44.14187879442666" lon="3.87091698068627"><ele>209.0</ele><time>2026-04-03T09:01:22Z</time></trkpt><trkpt lat="44.14184035347886" lon="3.8708400482253777"><ele>210.71428571428572</ele><time>2026-04-03T09:01:29Z</time></trkpt><trkpt lat="44.1418927313498" lon="3.8707891393036316"><ele>212.42857142857142</ele><time>2026-04-03T09:01:37Z</time></trkpt><trkpt lat="44.14196533612926" lon="3.870770519365998"><ele>214.14285714285717</ele><time>2026-04-03T09:01:57Z</time></trkpt><trkpt lat="44.14203701399318" lon="3.8707873006503077"><ele>215.85714285714286</ele><time>2026-04-03T09:02:07Z</time></trkpt><trkpt lat="44.14210239364483" lon="3.8707970825152067"><ele>217.57142857142858</ele><time>2026-04-03T09:02:14Z</time></trkpt><trkpt lat="44.142175571700875" lon="3.8707837297560355"><ele>219.2857142857143</ele><time>2026-04-03T09:02:21Z</time></trkpt><trkpt lat="44.142253527932326" lon="3.8707743222825375"><ele>221.0</ele><time>2026-04-03T09:03:55Z</time></trkpt><trkpt lat="44.142341182202756" lon="3.8707794408088936"><ele>219.83333333333334</ele><time>2026-04-03T09:03:57Z</time></trkpt><trkpt lat="44.14246530920496" lon="3.87081801119812"><ele>218.66666666666669</ele><time>2026-04-03T09:03:59Z</time></trkpt><trkpt lat="44.142529996785285" lon="3.870840657154022"><ele>217.5</ele><time>2026-04-03T09:04:00Z</time></trkpt><trkpt lat="44.14259608541438" lon="3.8708512814089278"><ele>216.33333333333331</ele><time>2026-04-03T09:04:01Z</time></trkpt><trkpt lat="44.142662363552375" lon="3.8708549311530933"><ele>215.16666666666666</ele><time>2026-04-03T09:04:02Z</time></trkpt><trkpt lat="44.14273727578136" lon="3.870859299701298"><ele>214.0</ele><time>2026-04-03T09:04:03Z</time></trkpt><trkpt lat="44.14281662691831" lon="3.870813938895984"><ele>214.0</ele><time>2026-04-03T09:04:05Z</time></trkpt><trkpt lat="44.14285302927067" lon="3.8706740556088777"><ele>213.99999999999997</ele><time>2026-04-03T09:04:07Z</time></trkpt><trkpt lat="44.14280260726714" lon="3.8705131407104556"><ele>213.99999999999997</ele><time>2026-04-03T09:04:09Z</time></trkpt><trkpt lat="44.14273031801437" lon="3.870434913551615"><ele>214.0</ele><time>2026-04-03T09:04:10Z</time></trkpt><trkpt lat="44.14264304877033" lon="3.8703526915843063"><ele>214.0</ele><time>2026-04-03T09:04:11Z</time></trkpt><trkpt lat="44.14254285754571" lon="3.8702756254200708"><ele>214.0</ele><time>2026-04-03T09:04:12Z</time></trkpt><trkpt lat="44.14244691222111" lon="3.870212157920092"><ele>213.99999999999997</ele><time>2026-04-03T09:04:13Z</time></trkpt><trkpt lat="44.14235292505606" lon="3.870171676233382"><ele>213.99999999999997</ele><time>2026-04-03T09:04:14Z</time></trkpt><trkpt lat="44.142258124167846" lon="3.8701227486610548"><ele>214.0</ele><time>2026-04-03T09:04:15Z</time></trkpt><trkpt lat="44.142202584856136" lon="3.8700764841171487"><ele>214.0</ele><time>2026-04-03T09:04:16Z</time></trkpt><trkpt lat="44.14208993840539" lon="3.870030673779583"><ele>215.39999999999998</ele><time>2026-04-03T09:04:18Z</time></trkpt><trkpt lat="44.14202704454548" lon="3.8700263502868304"><ele>216.79999999999998</ele><time>2026-04-03T09:04:19Z</time></trkpt><trkpt lat="44.14191045119774" lon="3.870042349646656"><ele>218.20000000000002</ele><time>2026-04-03T09:04:21Z</time></trkpt><trkpt lat="44.14183051207086" lon="3.8700667468578227"><ele>219.60000000000002</ele><time>2026-04-03T09:04:22Z</time></trkpt><trkpt lat="44.14172141245319" lon="3.8701139823896846"><ele>221.0</ele><time>2026-04-03T09:04:23Z</time></trkpt><trkpt lat="44.14157303375783" lon="3.8701819609859083"><ele>225.33333333333334</ele><time>2026-04-03T09:04:24Z</time></trkpt><trkpt lat="44.14137926792403" lon="3.87027682252821"><ele>229.66666666666669</ele><time>2026-04-03T09:04:25Z</time></trkpt><trkpt lat="44.14117176762164" lon="3.87038735496192"><ele>234.0</ele><time>2026-04-03T09:04:26Z</time></trkpt><trkpt lat="44.14096265595372" lon="3.870472419933468"><ele>234.0</ele><time>2026-04-03T09:04:27Z</time></trkpt><trkpt lat="44.1407698513529" lon="3.870525373919504"><ele>234.0</ele><time>2026-04-03T09:04:28Z</time></trkpt><trkpt lat="44.14059517726339" lon="3.8705845337038434"><ele>234.0</ele><time>2026-04-03T09:04:29Z</time></trkpt><trkpt lat="44.140430928980855" lon="3.8706691858765048"><ele>236.0</ele><time>2026-04-03T09:04:30Z</time></trkpt><trkpt lat="44.14027533184886" lon="3.870810303845611"><ele>238.0</ele><time>2026-04-03T09:04:31Z</time></trkpt><trkpt lat="44.140123592368504" lon="3.8710052017228187"><ele>240.0</ele><time>2026-04-03T09:04:32Z</time></trkpt><trkpt lat="44.13999166789878" lon="3.8712033528534837"><ele>253.0</ele><time>2026-04-03T09:04:33Z</time></trkpt><trkpt lat="44.13987364039194" lon="3.871369523172126"><ele>266.0</ele><time>2026-04-03T09:04:34Z</time></trkpt><trkpt lat="44.139790969328295" lon="3.8715793379629426"><ele>279.0</ele><time>2026-04-03T09:04:35Z</time></trkpt><trkpt lat="44.139744724586066" lon="3.8718337018857274"><ele>279.0</ele><time>2026-04-03T09:04:36Z</time></trkpt><trkpt lat="44.1397196709338" lon="3.872104908003879"><ele>279.0</ele><time>2026-04-03T09:04:37Z</time></trkpt><trkpt lat="44.13969398637355" lon="3.87237883540828"><ele>279.0</ele><time>2026-04-03T09:04:38Z</time></trkpt><trkpt lat="44.139659666777405" lon="3.872642476337329"><ele>271.6666666666667</ele><time>2026-04-03T09:04:39Z</time></trkpt><trkpt lat="44.13962666828075" lon="3.8728935635868242"><ele>264.33333333333337</ele><time>2026-04-03T09:04:40Z</time></trkpt><trkpt lat="44.139585646377775" lon="3.8731359529379326"><ele>257.0</ele><time>2026-04-03T09:04:41Z</time></trkpt><trkpt lat="44.139488822160814" lon="3.8733400663057638"><ele>250.66666666666669</ele><time>2026-04-03T09:04:42Z</time></trkpt><trkpt lat="44.139369917007116" lon="3.8735067860001675"><ele>244.33333333333331</ele><time>2026-04-03T09:04:43Z</time></trkpt><trkpt lat="44.13920906697172" lon="3.8735933681476564"><ele>238.0</ele><time>2026-04-03T09:04:44Z</time></trkpt><trkpt lat="44.13905215620138" lon="3.8737573973127755"><ele>239.33333333333331</ele><time>2026-04-03T09:04:45Z</time></trkpt><trkpt lat="44.13891773988651" lon="3.8739422279948386"><ele>240.66666666666669</ele><time>2026-04-03T09:04:46Z</time></trkpt><trkpt lat="44.13876284647447" lon="3.8741099625134"><ele>242.0</ele><time>2026-04-03T09:04:47Z</time></trkpt><trkpt lat="44.13859124104016" lon="3.874184844127554"><ele>242.0</ele><time>2026-04-03T09:04:48Z</time></trkpt><trkpt lat="44.13840526154581" lon="3.874142410881203"><ele>242.0</ele><time>2026-04-03T09:04:49Z</time></trkpt><trkpt lat="44.138226410280296" lon="3.8740657858977747"><ele>242.0</ele><time>2026-04-03T09:04:50Z</time></trkpt><trkpt lat="44.13809261052199" lon="3.8739360456304164"><ele>243.0</ele><time>2026-04-03T09:04:51Z</time></trkpt><trkpt lat="44.13798353233507" lon="3.8737631478852874"><ele>244.0</ele><time>2026-04-03T09:04:52Z</time></trkpt><trkpt lat="44.137998021639284" lon="3.873592225063381"><ele>245.0</ele><time>2026-04-03T09:04:53Z</time></trkpt><trkpt lat="44.13792592871143" lon="3.8733891909025577"><ele>245.0</ele><time>2026-04-03T09:04:54Z</time></trkpt><trkpt lat="44.13782004356972" lon="3.873245290369498"><ele>245.0</ele><time>2026-04-03T09:04:55Z</time></trkpt><trkpt lat="44.13769659079828" lon="3.8731657507157977"><ele>245.0</ele><time>2026-04-03T09:04:56Z</time></trkpt><trkpt lat="44.13755918082372" lon="3.873193532869116"><ele>245.0</ele><time>2026-04-03T09:04:57Z</time></trkpt><trkpt lat="44.13742401297378" lon="3.873311335574997"><ele>240.33333333333334</ele><time>2026-04-03T09:04:58Z</time></trkpt><trkpt lat="44.13727030007103" lon="3.873453315171423"><ele>235.66666666666669</ele><time>2026-04-03T09:04:59Z</time></trkpt><trkpt lat="44.13709757116199" lon="3.873499670717272"><ele>231.0</ele><time>2026-04-03T09:05:00Z</time></trkpt><trkpt lat="44.13692431439332" lon="3.8734380824072767"><ele>231.0</ele><time>2026-04-03T09:05:01Z</time></trkpt><trkpt lat="44.13678879056222" lon="3.873333346010027"><ele>231.0</ele><time>2026-04-03T09:05:02Z</time></trkpt><trkpt lat="44.1367039474621" lon="3.8731640459055687"><ele>231.0</ele><time>2026-04-03T09:05:03Z</time></trkpt><trkpt lat="44.13659165805466" lon="3.8729361755901865"><ele>228.0</ele><time>2026-04-03T09:05:04Z</time></trkpt><trkpt lat="44.13650406700559" lon="3.8727153293350396"><ele>225.0</ele><time>2026-04-03T09:05:05Z</time></trkpt><trkpt lat="44.13645799948978" lon="3.8724902821056806"><ele>222.0</ele><time>2026-04-03T09:05:06Z</time></trkpt><trkpt lat="44.13638704369479" lon="3.8723205046114364"><ele>222.0</ele><time>2026-04-03T09:05:07Z</time></trkpt><trkpt lat="44.136291408285985" lon="3.8721947400471803"><ele>222.0</ele><time>2026-04-03T09:05:08Z</time></trkpt><trkpt lat="44.13614202577476" lon="3.8721522227020926"><ele>222.0</ele><time>2026-04-03T09:05:09Z</time></trkpt><trkpt lat="44.13595581632176" lon="3.8721183288639716"><ele>222.0</ele><time>2026-04-03T09:05:10Z</time></trkpt><trkpt lat="44.135760025611056" lon="3.872035197339925"><ele>222.0</ele><time>2026-04-03T09:05:11Z</time></trkpt><trkpt lat="44.135582972912815" lon="3.87192685259802"><ele>222.0</ele><time>2026-04-03T09:05:12Z</time></trkpt><trkpt lat="44.13541932134247" lon="3.871822796608307"><ele>223.0</ele><time>2026-04-03T09:05:13Z</time></trkpt><trkpt lat="44.135268652766044" lon="3.871734829237252"><ele>224.0</ele><time>2026-04-03T09:05:14Z</time></trkpt><trkpt lat="44.13515761294552" lon="3.871675773662218"><ele>225.0</ele><time>2026-04-03T09:05:15Z</time></trkpt><trkpt lat="44.135069343436406" lon="3.87171191461055"><ele>226.0</ele><time>2026-04-03T09:05:16Z</time></trkpt><trkpt lat="44.13497799260154" lon="3.8718287180710345"><ele>228.5</ele><time>2026-04-03T09:05:17Z</time></trkpt><trkpt lat="44.134929320817655" lon="3.8720069184604764"><ele>231.0</ele><time>2026-04-03T09:05:18Z</time></trkpt><trkpt lat="44.134945729578455" lon="3.872193375670782"><ele>233.5</ele><time>2026-04-03T09:05:19Z</time></trkpt><trkpt lat="44.1350202569661" lon="3.8723669511609757"><ele>236.0</ele><time>2026-04-03T09:05:20Z</time></trkpt><trkpt lat="44.135131621501735" lon="3.8725134900131346"><ele>238.0</ele><time>2026-04-03T09:05:21Z</time></trkpt><trkpt lat="44.13527804835429" lon="3.872646981417891"><ele>240.0</ele><time>2026-04-03T09:05:22Z</time></trkpt><trkpt lat="44.135410235989816" lon="3.8727909691494333"><ele>242.0</ele><time>2026-04-03T09:05:23Z</time></trkpt><trkpt lat="44.135490680302496" lon="3.8729895232008724"><ele>242.0</ele><time>2026-04-03T09:05:24Z</time></trkpt><trkpt lat="44.135584401227035" lon="3.8732229774907845"><ele>242.0</ele><time>2026-04-03T09:05:25Z</time></trkpt><trkpt lat="44.135659718122746" lon="3.87348162122509"><ele>242.0</ele><time>2026-04-03T09:05:26Z</time></trkpt><trkpt lat="44.13573755678984" lon="3.8737132773865346"><ele>237.75</ele><time>2026-04-03T09:05:27Z</time></trkpt><trkpt lat="44.135815989786344" lon="3.8739171467029094"><ele>233.5</ele><time>2026-04-03T09:05:28Z</time></trkpt><trkpt lat="44.135880127771216" lon="3.874100804929941"><ele>229.25</ele><time>2026-04-03T09:05:29Z</time></trkpt><trkpt lat="44.135895668418144" lon="3.8742876715835903"><ele>225.0</ele><time>2026-04-03T09:05:30Z</time></trkpt><trkpt lat="44.135824702943005" lon="3.874436966208273"><ele>220.0</ele><time>2026-04-03T09:05:31Z</time></trkpt><trkpt lat="44.135725764200686" lon="3.8745762676156046"><ele>215.0</ele><time>2026-04-03T09:05:32Z</time></trkpt><trkpt lat="44.135599384970526" lon="3.874733728357598"><ele>210.0</ele><time>2026-04-03T09:05:33Z</time></trkpt><trkpt lat="44.13549069727179" lon="3.874913265563904"><ele>226.66666666666669</ele><time>2026-04-03T09:05:34Z</time></trkpt><trkpt lat="44.135409927247636" lon="3.875153382065061"><ele>243.33333333333334</ele><time>2026-04-03T09:05:35Z</time></trkpt><trkpt lat="44.13536653864182" lon="3.875441384762686"><ele>260.0</ele><time>2026-04-03T09:05:36Z</time></trkpt><trkpt lat="44.13535148284918" lon="3.8757472297435607"><ele>257.5</ele><time>2026-04-03T09:05:37Z</time></trkpt><trkpt lat="44.135337237904196" lon="3.876066910745879"><ele>255.0</ele><time>2026-04-03T09:05:38Z</time></trkpt><trkpt lat="44.13530429564791" lon="3.8763845300540414"><ele>255.0</ele><time>2026-04-03T09:05:39Z</time></trkpt><trkpt lat="44.13525899740339" lon="3.876684904967642"><ele>255.0</ele><time>2026-04-03T09:05:40Z</time></trkpt><trkpt lat="44.13522522375791" lon="3.876986516682897"><ele>255.0</ele><time>2026-04-03T09:05:41Z</time></trkpt><trkpt lat="44.135212715100316" lon="3.8772848616922886"><ele>254.0</ele><time>2026-04-03T09:05:42Z</time></trkpt><trkpt lat="44.135195267675535" lon="3.877577989410795"><ele>253.0</ele><time>2026-04-03T09:05:43Z</time></trkpt><trkpt lat="44.13515053187127" lon="3.877852617293634"><ele>252.0</ele><time>2026-04-03T09:05:44Z</time></trkpt><trkpt lat="44.13508399944893" lon="3.878108352346112"><ele>249.0</ele><time>2026-04-03T09:05:45Z</time></trkpt><trkpt lat="44.13500949313856" lon="3.878354559775604"><ele>246.0</ele><time>2026-04-03T09:05:46Z</time></trkpt><trkpt lat="44.134923917900274" lon="3.878590781564773"><ele>243.0</ele><time>2026-04-03T09:05:47Z</time></trkpt><trkpt lat="44.13480108669786" lon="3.878800419491903"><ele>243.0</ele><time>2026-04-03T09:05:48Z</time></trkpt><trkpt lat="44.134686112833165" lon="3.8789970485018794"><ele>243.0</ele><time>2026-04-03T09:05:49Z</time></trkpt><trkpt lat="44.13455301288499" lon="3.8790706693132484"><ele>243.0</ele><time>2026-04-03T09:05:50Z</time></trkpt><trkpt lat="44.13443056989703" lon="3.879081854879474"><ele>243.0</ele><time>2026-04-03T09:05:51Z</time></trkpt><trkpt lat="44.13431192328197" lon="3.8790402992942066"><ele>243.0</ele><time>2026-04-03T09:05:52Z</time></trkpt><trkpt lat="44.13415871365885" lon="3.879020323621927"><ele>243.0</ele><time>2026-04-03T09:05:53Z</time></trkpt><trkpt lat="44.13400856803754" lon="3.8789921765842736"><ele>243.0</ele><time>2026-04-03T09:05:54Z</time></trkpt><trkpt lat="44.133889030354354" lon="3.8790473498450226"><ele>243.0</ele><time>2026-04-03T09:05:55Z</time></trkpt><trkpt lat="44.1338069784082" lon="3.879173592570539"><ele>246.0</ele><time>2026-04-03T09:05:56Z</time></trkpt><trkpt lat="44.133733036146204" lon="3.879350305055778"><ele>249.0</ele><time>2026-04-03T09:05:57Z</time></trkpt><trkpt lat="44.13366539435359" lon="3.879498756180498"><ele>252.0</ele><time>2026-04-03T09:05:58Z</time></trkpt><trkpt lat="44.13359686420871" lon="3.8796052614591923"><ele>255.0</ele><time>2026-04-03T09:05:59Z</time></trkpt><trkpt lat="44.13349652721071" lon="3.879627809100171"><ele>255.0</ele><time>2026-04-03T09:06:00Z</time></trkpt><trkpt lat="44.13342596796466" lon="3.8797064617757258"><ele>255.0</ele><time>2026-04-03T09:06:01Z</time></trkpt><trkpt lat="44.13337820818891" lon="3.8798186660870475"><ele>255.0</ele><time>2026-04-03T09:06:02Z</time></trkpt><trkpt lat="44.13338423471822" lon="3.879976369916013"><ele>255.0</ele><time>2026-04-03T09:06:03Z</time></trkpt><trkpt lat="44.13343217480908" lon="3.880141655449374"><ele>255.0</ele><time>2026-04-03T09:06:04Z</time></trkpt><trkpt lat="44.13347021331599" lon="3.880317698046648"><ele>252.5</ele><time>2026-04-03T09:06:05Z</time></trkpt><trkpt lat="44.13346985570636" lon="3.880530228736872"><ele>250.0</ele><time>2026-04-03T09:06:06Z</time></trkpt><trkpt lat="44.13345652547576" lon="3.880731989691689"><ele>247.5</ele><time>2026-04-03T09:06:07Z</time></trkpt><trkpt lat="44.133420493363104" lon="3.880897645699689"><ele>245.0</ele><time>2026-04-03T09:06:08Z</time></trkpt><trkpt lat="44.13335869229357" lon="3.8810481033814614"><ele>245.0</ele><time>2026-04-03T09:06:09Z</time></trkpt><trkpt lat="44.133253852983664" lon="3.881192855662218"><ele>245.0</ele><time>2026-04-03T09:06:10Z</time></trkpt><trkpt lat="44.133131766635" lon="3.881336413160697"><ele>245.0</ele><time>2026-04-03T09:06:11Z</time></trkpt><trkpt lat="44.132997391080494" lon="3.8814674990581985"><ele>245.0</ele><time>2026-04-03T09:06:12Z</time></trkpt><trkpt lat="44.13283714155907" lon="3.8814822815267362"><ele>245.0</ele><time>2026-04-03T09:06:13Z</time></trkpt><trkpt lat="44.13265476640813" lon="3.8814809546699696"><ele>245.0</ele><time>2026-04-03T09:06:14Z</time></trkpt><trkpt lat="44.132451374948715" lon="3.8814802487579394"><ele>247.33333333333334</ele><time>2026-04-03T09:06:15Z</time></trkpt><trkpt lat="44.13226439152459" lon="3.8814348955045013"><ele>249.66666666666669</ele><time>2026-04-03T09:06:16Z</time></trkpt><trkpt lat="44.13209443839223" lon="3.8814006018655043"><ele>252.0</ele><time>2026-04-03T09:06:17Z</time></trkpt><trkpt lat="44.13194143566738" lon="3.8813706626893767"><ele>252.0</ele><time>2026-04-03T09:06:18Z</time></trkpt><trkpt lat="44.13180242902028" lon="3.88137955583799"><ele>252.0</ele><time>2026-04-03T09:06:19Z</time></trkpt><trkpt lat="44.13167436297891" lon="3.881407788751279"><ele>252.0</ele><time>2026-04-03T09:06:20Z</time></trkpt><trkpt lat="44.13155701189119" lon="3.881442498993368"><ele>252.0</ele><time>2026-04-03T09:06:21Z</time></trkpt><trkpt lat="44.13145867241666" lon="3.8815304207429357"><ele>248.25</ele><time>2026-04-03T09:06:22Z</time></trkpt><trkpt lat="44.131379410676544" lon="3.8816802904908623"><ele>244.5</ele><time>2026-04-03T09:06:23Z</time></trkpt><trkpt lat="44.131275631604126" lon="3.881817422081485"><ele>240.75</ele><time>2026-04-03T09:06:24Z</time></trkpt><trkpt lat="44.13113260970772" lon="3.8819003948916264"><ele>237.0</ele><time>2026-04-03T09:06:25Z</time></trkpt><trkpt lat="44.130981860921985" lon="3.8820180279508256"><ele>237.0</ele><time>2026-04-03T09:06:26Z</time></trkpt><trkpt lat="44.1308427944376" lon="3.8820746548254697"><ele>237.0</ele><time>2026-04-03T09:06:27Z</time></trkpt><trkpt lat="44.13071605995302" lon="3.882063184128835"><ele>237.0</ele><time>2026-04-03T09:06:28Z</time></trkpt><trkpt lat="44.130604191997556" lon="3.882018211018639"><ele>237.0</ele><time>2026-04-03T09:06:29Z</time></trkpt><trkpt lat="44.13051017479252" lon="3.8819229191011333"><ele>240.2</ele><time>2026-04-03T09:06:30Z</time></trkpt><trkpt lat="44.1303995338135" lon="3.881810175758619"><ele>243.39999999999998</ele><time>2026-04-03T09:06:31Z</time></trkpt><trkpt lat="44.130297897179574" lon="3.8817425009461135"><ele>246.60000000000002</ele><time>2026-04-03T09:06:32Z</time></trkpt><trkpt lat="44.13020300767572" lon="3.8817672094455657"><ele>249.8</ele><time>2026-04-03T09:06:33Z</time></trkpt><trkpt lat="44.130120270983916" lon="3.8818112333175376"><ele>253.0</ele><time>2026-04-03T09:06:34Z</time></trkpt><trkpt lat="44.130101955298315" lon="3.8819538094218506"><ele>253.0</ele><time>2026-04-03T09:06:35Z</time></trkpt><trkpt lat="44.130090672472456" lon="3.8821066124115244"><ele>253.0</ele><time>2026-04-03T09:06:36Z</time></trkpt><trkpt lat="44.13007695140611" lon="3.8822858546467276"><ele>253.0</ele><time>2026-04-03T09:06:37Z</time></trkpt><trkpt lat="44.1299864233877" lon="3.8823553357752356"><ele>253.0</ele><time>2026-04-03T09:06:38Z</time></trkpt><trkpt lat="44.1298896809883" lon="3.8823677263628187"><ele>253.0</ele><time>2026-04-03T09:06:39Z</time></trkpt><trkpt lat="44.129745207674986" lon="3.882413331373075"><ele>258.0</ele><time>2026-04-03T09:06:40Z</time></trkpt><trkpt lat="44.129580516514466" lon="3.8824587061000346"><ele>263.0</ele><time>2026-04-03T09:06:41Z</time></trkpt><trkpt lat="44.129417751928685" lon="3.882464331968909"><ele>268.0</ele><time>2026-04-03T09:06:42Z</time></trkpt><trkpt lat="44.12927277462421" lon="3.8824183046085903"><ele>268.0</ele><time>2026-04-03T09:06:43Z</time></trkpt><trkpt lat="44.129123513630084" lon="3.882471647557527"><ele>268.0</ele><time>2026-04-03T09:06:44Z</time></trkpt><trkpt lat="44.12896555478039" lon="3.8825560178925738"><ele>268.0</ele><time>2026-04-03T09:06:45Z</time></trkpt><trkpt lat="44.12880527355269" lon="3.8826052295119053"><ele>271.2</ele><time>2026-04-03T09:06:46Z</time></trkpt><trkpt lat="44.128672418149506" lon="3.8826075522864723"><ele>274.4</ele><time>2026-04-03T09:06:47Z</time></trkpt><trkpt lat="44.128557127927365" lon="3.882595648237701"><ele>277.59999999999997</ele><time>2026-04-03T09:06:48Z</time></trkpt><trkpt lat="44.12847934128158" lon="3.882629654104224"><ele>280.8</ele><time>2026-04-03T09:06:49Z</time></trkpt><trkpt lat="44.12843781953859" lon="3.882748758703985"><ele>284.0</ele><time>2026-04-03T09:06:50Z</time></trkpt><trkpt lat="44.128423779379865" lon="3.8828723980178186"><ele>285.0</ele><time>2026-04-03T09:06:51Z</time></trkpt><trkpt lat="44.12847319127302" lon="3.883023470273229"><ele>286.0</ele><time>2026-04-03T09:06:52Z</time></trkpt><trkpt lat="44.12855062419519" lon="3.8831189434168394"><ele>287.0</ele><time>2026-04-03T09:06:53Z</time></trkpt><trkpt lat="44.12865072644551" lon="3.8831948722586453"><ele>288.0</ele><time>2026-04-03T09:06:54Z</time></trkpt><trkpt lat="44.128771359647324" lon="3.883302197719772"><ele>288.75</ele><time>2026-04-03T09:06:55Z</time></trkpt><trkpt lat="44.128869385316115" lon="3.883441621848626"><ele>289.5</ele><time>2026-04-03T09:06:56Z</time></trkpt><trkpt lat="44.128939858614594" lon="3.8835853116329804"><ele>290.25</ele><time>2026-04-03T09:06:57Z</time></trkpt><trkpt lat="44.12897215162281" lon="3.883724808961136"><ele>291.0</ele><time>2026-04-03T09:06:58Z</time></trkpt><trkpt lat="44.1289669709147" lon="3.8838712854748305"><ele>291.0</ele><time>2026-04-03T09:06:59Z</time></trkpt><trkpt lat="44.12893190320493" lon="3.884046310429823"><ele>291.0</ele><time>2026-04-03T09:07:00Z</time></trkpt><trkpt lat="44.12885753331152" lon="3.884246958000053"><ele>291.0</ele><time>2026-04-03T09:07:01Z</time></trkpt><trkpt lat="44.128737109479744" lon="3.884412928343637"><ele>283.6666666666667</ele><time>2026-04-03T09:07:02Z</time></trkpt><trkpt lat="44.12861358020536" lon="3.8845775881785514"><ele>276.33333333333337</ele><time>2026-04-03T09:07:03Z</time></trkpt><trkpt lat="44.128468613929904" lon="3.8847507688284333"><ele>269.0</ele><time>2026-04-03T09:07:04Z</time></trkpt><trkpt lat="44.1283067708952" lon="3.8849370208878082"><ele>274.0</ele><time>2026-04-03T09:07:05Z</time></trkpt><trkpt lat="44.12813171513181" lon="3.885094333416427"><ele>279.0</ele><time>2026-04-03T09:07:06Z</time></trkpt><trkpt lat="44.12795384855846" lon="3.8852610450153926"><ele>284.0</ele><time>2026-04-03T09:07:07Z</time></trkpt><trkpt lat="44.12782243339614" lon="3.885423806356166"><ele>278.0</ele><time>2026-04-03T09:07:08Z</time></trkpt><trkpt lat="44.12770469358126" lon="3.885558511959018"><ele>272.0</ele><time>2026-04-03T09:07:09Z</time></trkpt><trkpt lat="44.12759924826311" lon="3.8856398039235573"><ele>266.0</ele><time>2026-04-03T09:07:10Z</time></trkpt><trkpt lat="44.12752234367205" lon="3.885670280501272"><ele>260.0</ele><time>2026-04-03T09:07:11Z</time></trkpt><trkpt lat="44.12743867799545" lon="3.8856172075655597"><ele>254.0</ele><time>2026-04-03T09:07:12Z</time></trkpt><trkpt lat="44.12741303217446" lon="3.885451977971043"><ele>254.33333333333334</ele><time>2026-04-03T09:07:13Z</time></trkpt><trkpt lat="44.12735255550259" lon="3.8852776520207795"><ele>254.66666666666669</ele><time>2026-04-03T09:07:14Z</time></trkpt><trkpt lat="44.127262003922795" lon="3.885073890804648"><ele>255.0</ele><time>2026-04-03T09:07:15Z</time></trkpt><trkpt lat="44.127177015952725" lon="3.8848842569692175"><ele>258.6666666666667</ele><time>2026-04-03T09:07:16Z</time></trkpt><trkpt lat="44.12705782629297" lon="3.8847376354336562"><ele>262.33333333333337</ele><time>2026-04-03T09:07:17Z</time></trkpt><trkpt lat="44.12688597912988" lon="3.8846552473535136"><ele>266.0</ele><time>2026-04-03T09:07:18Z</time></trkpt><trkpt lat="44.126687255770356" lon="3.8845779560476053"><ele>270.6666666666667</ele><time>2026-04-03T09:07:19Z</time></trkpt><trkpt lat="44.12650469352611" lon="3.884493195961721"><ele>275.3333333333333</ele><time>2026-04-03T09:07:20Z</time></trkpt><trkpt lat="44.126323261771" lon="3.8844011898981767"><ele>280.0</ele><time>2026-04-03T09:07:21Z</time></trkpt><trkpt lat="44.126165372375795" lon="3.8842962068362055"><ele>281.25</ele><time>2026-04-03T09:07:22Z</time></trkpt><trkpt lat="44.12603505863611" lon="3.884213215778697"><ele>282.5</ele><time>2026-04-03T09:07:23Z</time></trkpt><trkpt lat="44.12592980849882" lon="3.8841299315082893"><ele>283.75</ele><time>2026-04-03T09:07:24Z</time></trkpt><trkpt lat="44.125875860716725" lon="3.8839418407496855"><ele>285.0</ele><time>2026-04-03T09:07:25Z</time></trkpt><trkpt lat="44.12578925657848" lon="3.883825226931619"><ele>289.0</ele><time>2026-04-03T09:07:26Z</time></trkpt><trkpt lat="44.12571431400552" lon="3.883731389114206"><ele>293.0</ele><time>2026-04-03T09:07:27Z</time></trkpt><trkpt lat="44.125620308050316" lon="3.8837363676866494"><ele>297.0</ele><time>2026-04-03T09:07:28Z</time></trkpt><trkpt lat="44.12554402336448" lon="3.883816271731169"><ele>301.0</ele><time>2026-04-03T09:07:29Z</time></trkpt><trkpt lat="44.12549294133884" lon="3.883946214327084"><ele>305.0</ele><time>2026-04-03T09:07:30Z</time></trkpt><trkpt lat="44.12549516777976" lon="3.8840974323799746"><ele>309.6666666666667</ele><time>2026-04-03T09:07:31Z</time></trkpt><trkpt lat="44.12553560641074" lon="3.884272126101018"><ele>314.3333333333333</ele><time>2026-04-03T09:07:32Z</time></trkpt><trkpt lat="44.12558928758048" lon="3.8844840936056246"><ele>319.0</ele><time>2026-04-03T09:07:33Z</time></trkpt><trkpt lat="44.125654921783195" lon="3.8846882728619407"><ele>308.66666666666663</ele><time>2026-04-03T09:07:34Z</time></trkpt><trkpt lat="44.12575344012392" lon="3.8848777637607914"><ele>298.3333333333333</ele><time>2026-04-03T09:07:35Z</time></trkpt><trkpt lat="44.12585733983487" lon="3.885060371209136"><ele>288.0</ele><time>2026-04-03T09:07:36Z</time></trkpt><trkpt lat="44.12593273592713" lon="3.8852323418402546"><ele>288.0</ele><time>2026-04-03T09:07:37Z</time></trkpt><trkpt lat="44.12598392760724" lon="3.8853873609363667"><ele>288.0</ele><time>2026-04-03T09:07:38Z</time></trkpt><trkpt lat="44.126005327594555" lon="3.885536808794688"><ele>288.0</ele><time>2026-04-03T09:07:39Z</time></trkpt><trkpt lat="44.12596046833118" lon="3.885680606091183"><ele>288.0</ele><time>2026-04-03T09:07:40Z</time></trkpt><trkpt lat="44.12590148430467" lon="3.8858481008915184"><ele>290.8</ele><time>2026-04-03T09:07:41Z</time></trkpt><trkpt lat="44.1258603582038" lon="3.8860084269941373"><ele>293.6</ele><time>2026-04-03T09:07:42Z</time></trkpt><trkpt lat="44.12583635291624" lon="3.886136324285157"><ele>296.4</ele><time>2026-04-03T09:07:43Z</time></trkpt><trkpt lat="44.12587612752677" lon="3.886261908472808"><ele>299.2</ele><time>2026-04-03T09:07:44Z</time></trkpt><trkpt lat="44.1259652824211" lon="3.8863528168557195"><ele>302.0</ele><time>2026-04-03T09:07:45Z</time></trkpt><trkpt lat="44.126083232341315" lon="3.886389604023889"><ele>302.0</ele><time>2026-04-03T09:07:46Z</time></trkpt><trkpt lat="44.126201736926944" lon="3.886400284693329"><ele>302.0</ele><time>2026-04-03T09:07:47Z</time></trkpt><trkpt lat="44.12627409144299" lon="3.886469176257527"><ele>302.0</ele><time>2026-04-03T09:07:48Z</time></trkpt><trkpt lat="44.12628965736378" lon="3.8866287059901294"><ele>302.0</ele><time>2026-04-03T09:07:49Z</time></trkpt><trkpt lat="44.12630860404361" lon="3.8868269944022606"><ele>303.75</ele><time>2026-04-03T09:07:50Z</time></trkpt><trkpt lat="44.126370782051474" lon="3.887020911398243"><ele>305.5</ele><time>2026-04-03T09:07:51Z</time></trkpt><trkpt lat="44.12642418614577" lon="3.8871787579721735"><ele>307.25</ele><time>2026-04-03T09:07:52Z</time></trkpt><trkpt lat="44.12641545128379" lon="3.8873377321981493"><ele>309.0</ele><time>2026-04-03T09:07:53Z</time></trkpt><trkpt lat="44.12635801606111" lon="3.8874794141279705"><ele>301.0</ele><time>2026-04-03T09:07:54Z</time></trkpt><trkpt lat="44.126265640297746" lon="3.8876250745948235"><ele>293.0</ele><time>2026-04-03T09:07:55Z</time></trkpt><trkpt lat="44.12615229281817" lon="3.887791760597289"><ele>285.0</ele><time>2026-04-03T09:07:56Z</time></trkpt><trkpt lat="44.12603847474866" lon="3.887971561168285"><ele>285.0</ele><time>2026-04-03T09:07:57Z</time></trkpt><trkpt lat="44.12589436955069" lon="3.888080714310922"><ele>285.0</ele><time>2026-04-03T09:07:58Z</time></trkpt><trkpt lat="44.12575466596349" lon="3.888168447854873"><ele>285.0</ele><time>2026-04-03T09:07:59Z</time></trkpt><trkpt lat="44.12563987041648" lon="3.8883087591502488"><ele>283.25</ele><time>2026-04-03T09:08:00Z</time></trkpt><trkpt lat="44.125533021549415" lon="3.8884785373159687"><ele>281.5</ele><time>2026-04-03T09:08:01Z</time></trkpt><trkpt lat="44.1254151070344" lon="3.8886031246928106"><ele>279.75</ele><time>2026-04-03T09:08:02Z</time></trkpt><trkpt lat="44.125284286286266" lon="3.8886693705010393"><ele>278.0</ele><time>2026-04-03T09:08:03Z</time></trkpt><trkpt lat="44.1251565228339" lon="3.888660020757728"><ele>278.0</ele><time>2026-04-03T09:08:04Z</time></trkpt><trkpt lat="44.12503248282343" lon="3.8885994243472215"><ele>278.0</ele><time>2026-04-03T09:08:05Z</time></trkpt><trkpt lat="44.124916862221696" lon="3.8884777645917383"><ele>278.0</ele><time>2026-04-03T09:08:06Z</time></trkpt><trkpt lat="44.12479900742838" lon="3.888407253417575"><ele>278.0</ele><time>2026-04-03T09:08:07Z</time></trkpt><trkpt lat="44.12468754513616" lon="3.888387710895338"><ele>280.75</ele><time>2026-04-03T09:08:08Z</time></trkpt><trkpt lat="44.12458238723849" lon="3.8884635327324486"><ele>283.5</ele><time>2026-04-03T09:08:09Z</time></trkpt><trkpt lat="44.12450526027043" lon="3.888601776427975"><ele>286.25</ele><time>2026-04-03T09:08:10Z</time></trkpt><trkpt lat="44.124446744289045" lon="3.88879735538785"><ele>289.0</ele><time>2026-04-03T09:08:11Z</time></trkpt><trkpt lat="44.12434868546412" lon="3.8889565036002214"><ele>289.0</ele><time>2026-04-03T09:08:12Z</time></trkpt><trkpt lat="44.124225657577995" lon="3.8890935005451204"><ele>289.0</ele><time>2026-04-03T09:08:13Z</time></trkpt><trkpt lat="44.124099508302166" lon="3.88917835534772"><ele>289.0</ele><time>2026-04-03T09:08:14Z</time></trkpt><trkpt lat="44.12396023661788" lon="3.889222587324687"><ele>289.0</ele><time>2026-04-03T09:08:15Z</time></trkpt><trkpt lat="44.12378720050942" lon="3.8892548786959944"><ele>287.3333333333333</ele><time>2026-04-03T09:08:16Z</time></trkpt><trkpt lat="44.123619537239804" lon="3.8892478890414037"><ele>285.6666666666667</ele><time>2026-04-03T09:08:17Z</time></trkpt><trkpt lat="44.12347146798151" lon="3.88919593098311"><ele>284.0</ele><time>2026-04-03T09:08:18Z</time></trkpt><trkpt lat="44.1233470577829" lon="3.8890952112749777"><ele>284.0</ele><time>2026-04-03T09:08:19Z</time></trkpt><trkpt lat="44.12325808541053" lon="3.888947470463648"><ele>284.0</ele><time>2026-04-03T09:08:20Z</time></trkpt><trkpt lat="44.12318589807777" lon="3.8888115900743805"><ele>284.0</ele><time>2026-04-03T09:08:21Z</time></trkpt><trkpt lat="44.123106693023786" lon="3.88875385402101"><ele>284.0</ele><time>2026-04-03T09:08:22Z</time></trkpt><trkpt lat="44.1230216961017" lon="3.888752086804052"><ele>284.0</ele><time>2026-04-03T09:08:23Z</time></trkpt><trkpt lat="44.122933291113334" lon="3.8888167481945786"><ele>283.75</ele><time>2026-04-03T09:08:24Z</time></trkpt><trkpt lat="44.12284972749151" lon="3.888940300097769"><ele>283.5</ele><time>2026-04-03T09:08:25Z</time></trkpt><trkpt lat="44.122777245898014" lon="3.889132436018753"><ele>283.25</ele><time>2026-04-03T09:08:26Z</time></trkpt><trkpt lat="44.12272441565549" lon="3.8893295381798265"><ele>283.0</ele><time>2026-04-03T09:08:27Z</time></trkpt><trkpt lat="44.122694432976274" lon="3.889503417972721"><ele>281.6</ele><time>2026-04-03T09:08:28Z</time></trkpt><trkpt lat="44.122632224634245" lon="3.8896186668842634"><ele>280.20000000000005</ele><time>2026-04-03T09:08:29Z</time></trkpt><trkpt lat="44.12256534842809" lon="3.889700961307263"><ele>278.8</ele><time>2026-04-03T09:08:30Z</time></trkpt><trkpt lat="44.122452880620536" lon="3.889658378298381"><ele>277.40000000000003</ele><time>2026-04-03T09:08:31Z</time></trkpt><trkpt lat="44.122351010292654" lon="3.889609738479965"><ele>276.0</ele><time>2026-04-03T09:08:32Z</time></trkpt><trkpt lat="44.12227710558446" lon="3.88950672557535"><ele>276.0</ele><time>2026-04-03T09:08:33Z</time></trkpt><trkpt lat="44.122252460409975" lon="3.889342928334145"><ele>276.0</ele><time>2026-04-03T09:08:34Z</time></trkpt><trkpt lat="44.12221505790535" lon="3.88916112563549"><ele>276.0</ele><time>2026-04-03T09:08:35Z</time></trkpt><trkpt lat="44.122157402413094" lon="3.889030439815522"><ele>276.0</ele><time>2026-04-03T09:08:36Z</time></trkpt><trkpt lat="44.122075035942494" lon="3.888956668495601"><ele>276.0</ele><time>2026-04-03T09:08:37Z</time></trkpt><trkpt lat="44.12195947750646" lon="3.888948323700126"><ele>276.0</ele><time>2026-04-03T09:08:38Z</time></trkpt><trkpt lat="44.121853443070044" lon="3.889005600317594"><ele>276.0</ele><time>2026-04-03T09:08:39Z</time></trkpt><trkpt lat="44.12175663671474" lon="3.8891212942725746"><ele>276.0</ele><time>2026-04-03T09:08:40Z</time></trkpt><trkpt lat="44.12168146755249" lon="3.8892868793973516"><ele>276.0</ele><time>2026-04-03T09:08:41Z</time></trkpt><trkpt lat="44.12163207006493" lon="3.8894901195301452"><ele>276.0</ele><time>2026-04-03T09:08:42Z</time></trkpt><trkpt lat="44.1216033383395" lon="3.889727946288095"><ele>276.0</ele><time>2026-04-03T09:08:43Z</time></trkpt><trkpt lat="44.121585784089184" lon="3.889958062014793"><ele>272.5</ele><time>2026-04-03T09:08:44Z</time></trkpt><trkpt lat="44.12156718308013" lon="3.890146580366336"><ele>269.0</ele><time>2026-04-03T09:08:45Z</time></trkpt><trkpt lat="44.12151495139954" lon="3.8902897165157873"><ele>265.5</ele><time>2026-04-03T09:08:46Z</time></trkpt><trkpt lat="44.12144466196913" lon="3.8904152644465824"><ele>262.0</ele><time>2026-04-03T09:08:47Z</time></trkpt><trkpt lat="44.1213449724241" lon="3.8904654417254076"><ele>261.5</ele><time>2026-04-03T09:08:48Z</time></trkpt><trkpt lat="44.12123250642553" lon="3.8904568840568037"><ele>261.0</ele><time>2026-04-03T09:08:49Z</time></trkpt><trkpt lat="44.12113111408056" lon="3.890387335867585"><ele>260.5</ele><time>2026-04-03T09:08:50Z</time></trkpt><trkpt lat="44.12100888276047" lon="3.8903137907141283"><ele>260.0</ele><time>2026-04-03T09:08:51Z</time></trkpt><trkpt lat="44.12094713018047" lon="3.890173797440231"><ele>264.0</ele><time>2026-04-03T09:08:52Z</time></trkpt><trkpt lat="44.12096030889194" lon="3.890008433586961"><ele>268.0</ele><time>2026-04-03T09:08:53Z</time></trkpt><trkpt lat="44.120933382259786" lon="3.8898510562533977"><ele>272.0</ele><time>2026-04-03T09:08:54Z</time></trkpt><trkpt lat="44.12085789261826" lon="3.8896953738158984"><ele>276.0</ele><time>2026-04-03T09:08:55Z</time></trkpt><trkpt lat="44.12072645407034" lon="3.8895801367844176"><ele>276.0</ele><time>2026-04-03T09:08:56Z</time></trkpt><trkpt lat="44.120607778613106" lon="3.8893955085056198"><ele>276.0</ele><time>2026-04-03T09:08:57Z</time></trkpt><trkpt lat="44.12048830891817" lon="3.8891592167328004"><ele>276.0</ele><time>2026-04-03T09:08:58Z</time></trkpt><trkpt lat="44.12036131597079" lon="3.888981737860728"><ele>276.8</ele><time>2026-04-03T09:08:59Z</time></trkpt><trkpt lat="44.12026280702086" lon="3.888838037196181"><ele>277.6</ele><time>2026-04-03T09:09:00Z</time></trkpt><trkpt lat="44.12021931971286" lon="3.888707513802582"><ele>278.4</ele><time>2026-04-03T09:09:01Z</time></trkpt><trkpt lat="44.12023547383754" lon="3.8885931785010537"><ele>279.2</ele><time>2026-04-03T09:09:02Z</time></trkpt><trkpt lat="44.12028862597145" lon="3.8884558476315507"><ele>280.0</ele><time>2026-04-03T09:09:03Z</time></trkpt><trkpt lat="44.12030968024599" lon="3.888318002984303"><ele>282.4</ele><time>2026-04-03T09:09:04Z</time></trkpt><trkpt lat="44.12025966869007" lon="3.888214460346277"><ele>284.8</ele><time>2026-04-03T09:09:05Z</time></trkpt><trkpt lat="44.12017596237907" lon="3.8881632628719043"><ele>287.2</ele><time>2026-04-03T09:09:06Z</time></trkpt><trkpt lat="44.12007896858279" lon="3.888145181927313"><ele>289.6</ele><time>2026-04-03T09:09:07Z</time></trkpt><trkpt lat="44.119975425225554" lon="3.8882356205483966"><ele>292.0</ele><time>2026-04-03T09:09:08Z</time></trkpt><trkpt lat="44.11992006572499" lon="3.888410597803363"><ele>292.3333333333333</ele><time>2026-04-03T09:09:09Z</time></trkpt><trkpt lat="44.11986687407467" lon="3.888582191478328"><ele>292.6666666666667</ele><time>2026-04-03T09:09:10Z</time></trkpt><trkpt lat="44.119794920286154" lon="3.888781437478036"><ele>293.0</ele><time>2026-04-03T09:09:11Z</time></trkpt><trkpt lat="44.11969297258556" lon="3.8889868642322694"><ele>293.0</ele><time>2026-04-03T09:09:12Z</time></trkpt><trkpt lat="44.11958194662155" lon="3.8891490125089367"><ele>293.0</ele><time>2026-04-03T09:09:13Z</time></trkpt><trkpt lat="44.11948396970739" lon="3.889290178777413"><ele>293.0</ele><time>2026-04-03T09:09:14Z</time></trkpt><trkpt lat="44.11933842577316" lon="3.889391906045666"><ele>293.33333333333337</ele><time>2026-04-03T09:09:15Z</time></trkpt><trkpt lat="44.11916238020083" lon="3.8895009999516956"><ele>293.6666666666667</ele><time>2026-04-03T09:09:16Z</time></trkpt><trkpt lat="44.11898244934453" lon="3.889626461650283"><ele>294.0</ele><time>2026-04-03T09:09:17Z</time></trkpt><trkpt lat="44.118815637916526" lon="3.8897245914537844"><ele>294.0</ele><time>2026-04-03T09:09:18Z</time></trkpt><trkpt lat="44.11865800839779" lon="3.8897825877024728"><ele>294.0</ele><time>2026-04-03T09:09:19Z</time></trkpt><trkpt lat="44.11851109729088" lon="3.8898111908531066"><ele>294.0</ele><time>2026-04-03T09:09:20Z</time></trkpt><trkpt lat="44.11835365999479" lon="3.8898245044666964"><ele>289.3333333333333</ele><time>2026-04-03T09:09:21Z</time></trkpt><trkpt lat="44.11818352358054" lon="3.8897857517933514"><ele>284.66666666666663</ele><time>2026-04-03T09:09:22Z</time></trkpt><trkpt lat="44.11801368475636" lon="3.889755481554757"><ele>280.0</ele><time>2026-04-03T09:09:23Z</time></trkpt><trkpt lat="44.11784214354432" lon="3.8897882003568487"><ele>280.0</ele><time>2026-04-03T09:09:24Z</time></trkpt><trkpt lat="44.117689870153505" lon="3.889868475635376"><ele>280.0</ele><time>2026-04-03T09:09:25Z</time></trkpt><trkpt lat="44.11757465221077" lon="3.8900113266879877"><ele>280.0</ele><time>2026-04-03T09:09:26Z</time></trkpt><trkpt lat="44.11747164529774" lon="3.890204163845096"><ele>277.3333333333333</ele><time>2026-04-03T09:09:27Z</time></trkpt><trkpt lat="44.117379466264225" lon="3.890442422232254"><ele>274.6666666666667</ele><time>2026-04-03T09:09:28Z</time></trkpt><trkpt lat="44.11724864167916" lon="3.890607259759436"><ele>272.0</ele><time>2026-04-03T09:09:29Z</time></trkpt><trkpt lat="44.117100115388155" lon="3.8907090033169474"><ele>272.0</ele><time>2026-04-03T09:09:30Z</time></trkpt><trkpt lat="44.116913698022366" lon="3.890755504835531"><ele>272.0</ele><time>2026-04-03T09:09:31Z</time></trkpt><trkpt lat="44.116696424722555" lon="3.8908308810337804"><ele>272.0</ele><time>2026-04-03T09:09:32Z</time></trkpt><trkpt lat="44.11646435206531" lon="3.8908658303879853"><ele>268.5</ele><time>2026-04-03T09:09:33Z</time></trkpt><trkpt lat="44.11623888184986" lon="3.8908901137195926"><ele>265.0</ele><time>2026-04-03T09:09:34Z</time></trkpt><trkpt lat="44.11601636452442" lon="3.890857708459564"><ele>265.0</ele><time>2026-04-03T09:09:35Z</time></trkpt><trkpt lat="44.11581809258295" lon="3.890820151282544"><ele>265.0</ele><time>2026-04-03T09:09:36Z</time></trkpt><trkpt lat="44.11565242581954" lon="3.8907680283492323"><ele>265.0</ele><time>2026-04-03T09:09:37Z</time></trkpt><trkpt lat="44.11551806658785" lon="3.8907446006659026"><ele>265.0</ele><time>2026-04-03T09:09:38Z</time></trkpt><trkpt lat="44.1153923077729" lon="3.8907334436248457"><ele>265.0</ele><time>2026-04-03T09:09:39Z</time></trkpt><trkpt lat="44.1152725903106" lon="3.890803234840038"><ele>265.0</ele><time>2026-04-03T09:09:40Z</time></trkpt><trkpt lat="44.1151544299552" lon="3.890951430746084"><ele>265.0</ele><time>2026-04-03T09:09:41Z</time></trkpt><trkpt lat="44.115013657342665" lon="3.89107383747446"><ele>258.0</ele><time>2026-04-03T09:09:42Z</time></trkpt><trkpt lat="44.114870609987385" lon="3.891194665626129"><ele>251.0</ele><time>2026-04-03T09:09:43Z</time></trkpt><trkpt lat="44.11474312863373" lon="3.891279220735658"><ele>244.0</ele><time>2026-04-03T09:09:44Z</time></trkpt><trkpt lat="44.11460250718787" lon="3.8913182545718956"><ele>244.0</ele><time>2026-04-03T09:09:45Z</time></trkpt><trkpt lat="44.114444888726915" lon="3.8913018605317102"><ele>244.0</ele><time>2026-04-03T09:09:46Z</time></trkpt><trkpt lat="44.114277997560414" lon="3.8912725914573816"><ele>244.0</ele><time>2026-04-03T09:09:47Z</time></trkpt><trkpt lat="44.11410884938606" lon="3.891228256818346"><ele>241.6</ele><time>2026-04-03T09:09:48Z</time></trkpt><trkpt lat="44.11398068448225" lon="3.8911523400453505"><ele>239.2</ele><time>2026-04-03T09:09:49Z</time></trkpt><trkpt lat="44.11391044079623" lon="3.8910859098376225"><ele>236.79999999999998</ele><time>2026-04-03T09:09:50Z</time></trkpt><trkpt lat="44.11391077199511" lon="3.8909418922711865"><ele>234.39999999999998</ele><time>2026-04-03T09:09:51Z</time></trkpt><trkpt lat="44.11391600430676" lon="3.89081168494633"><ele>232.0</ele><time>2026-04-03T09:09:52Z</time></trkpt><trkpt lat="44.114023607441794" lon="3.8906427815509557"><ele>234.0</ele><time>2026-04-03T09:09:53Z</time></trkpt><trkpt lat="44.114082460907554" lon="3.8904489814607133"><ele>236.0</ele><time>2026-04-03T09:09:54Z</time></trkpt><trkpt lat="44.11409919211179" lon="3.8902439264499606"><ele>238.0</ele><time>2026-04-03T09:09:55Z</time></trkpt><trkpt lat="44.114059745651495" lon="3.890045926783264"><ele>240.0</ele><time>2026-04-03T09:09:56Z</time></trkpt><trkpt lat="44.113971190696304" lon="3.8898943722847665"><ele>240.0</ele><time>2026-04-03T09:09:57Z</time></trkpt><trkpt lat="44.11384526294193" lon="3.889780981810935"><ele>240.0</ele><time>2026-04-03T09:09:58Z</time></trkpt><trkpt lat="44.11369772272003" lon="3.889733729474162"><ele>240.0</ele><time>2026-04-03T09:09:59Z</time></trkpt><trkpt lat="44.113555444439406" lon="3.8897876450330293"><ele>240.0</ele><time>2026-04-03T09:10:00Z</time></trkpt><trkpt lat="44.11341558302404" lon="3.8899068500658824"><ele>240.0</ele><time>2026-04-03T09:10:01Z</time></trkpt><trkpt lat="44.113275954612185" lon="3.890067058470585"><ele>240.0</ele><time>2026-04-03T09:10:02Z</time></trkpt><trkpt lat="44.113149414072396" lon="3.8901603942502216"><ele>240.0</ele><time>2026-04-03T09:10:03Z</time></trkpt><trkpt lat="44.11303722085295" lon="3.8901566874029068"><ele>240.0</ele><time>2026-04-03T09:10:04Z</time></trkpt><trkpt lat="44.112944786017174" lon="3.890097526995085"><ele>236.5</ele><time>2026-04-03T09:10:05Z</time></trkpt><trkpt lat="44.11287168858203" lon="3.889989510290117"><ele>233.0</ele><time>2026-04-03T09:10:06Z</time></trkpt><trkpt lat="44.11285107560898" lon="3.8898406748112864"><ele>229.5</ele><time>2026-04-03T09:10:07Z</time></trkpt><trkpt lat="44.11286313039128" lon="3.8896807054359206"><ele>226.0</ele><time>2026-04-03T09:10:08Z</time></trkpt><trkpt lat="44.11297530983405" lon="3.889575146220254"><ele>226.0</ele><time>2026-04-03T09:10:09Z</time></trkpt><trkpt lat="44.11308796395096" lon="3.8895155676646698"><ele>226.0</ele><time>2026-04-03T09:10:10Z</time></trkpt><trkpt lat="44.113223036362896" lon="3.8894544101742627"><ele>226.0</ele><time>2026-04-03T09:10:11Z</time></trkpt><trkpt lat="44.113385756072326" lon="3.8893762250925206"><ele>226.0</ele><time>2026-04-03T09:10:12Z</time></trkpt><trkpt lat="44.113552380378046" lon="3.889232960054945"><ele>228.5</ele><time>2026-04-03T09:10:13Z</time></trkpt><trkpt lat="44.113695884977616" lon="3.8891049338062267"><ele>231.0</ele><time>2026-04-03T09:10:14Z</time></trkpt><trkpt lat="44.11382438853663" lon="3.889018720292853"><ele>233.5</ele><time>2026-04-03T09:10:15Z</time></trkpt><trkpt lat="44.11393222625807" lon="3.888969417463024"><ele>236.0</ele><time>2026-04-03T09:10:16Z</time></trkpt><trkpt lat="44.11401595516214" lon="3.8889134754931733"><ele>236.0</ele><time>2026-04-03T09:10:17Z</time></trkpt><trkpt lat="44.11405908955221" lon="3.8887961453352804"><ele>236.00000000000003</ele><time>2026-04-03T09:10:18Z</time></trkpt><trkpt lat="44.114056696831405" lon="3.888660482973588"><ele>236.00000000000003</ele><time>2026-04-03T09:10:19Z</time></trkpt><trkpt lat="44.114003694789155" lon="3.888539230697394"><ele>236.0</ele><time>2026-04-03T09:10:20Z</time></trkpt><trkpt lat="44.11390601903948" lon="3.8884634036459085"><ele>236.0</ele><time>2026-04-03T09:10:21Z</time></trkpt><trkpt lat="44.11379415035569" lon="3.8884551241790275"><ele>236.0</ele><time>2026-04-03T09:10:22Z</time></trkpt><trkpt lat="44.11367350684187" lon="3.8885011328745374"><ele>236.0</ele><time>2026-04-03T09:10:23Z</time></trkpt><trkpt lat="44.113547489971324" lon="3.888540970153762"><ele>236.0</ele><time>2026-04-03T09:10:24Z</time></trkpt><trkpt lat="44.11342190672047" lon="3.888479854339348"><ele>236.0</ele><time>2026-04-03T09:10:25Z</time></trkpt><trkpt lat="44.113333454526376" lon="3.8883614740508188"><ele>234.0</ele><time>2026-04-03T09:10:26Z</time></trkpt><trkpt lat="44.113257012084084" lon="3.8882149709457354"><ele>232.0</ele><time>2026-04-03T09:10:27Z</time></trkpt><trkpt lat="44.11317486504185" lon="3.88810522060246"><ele>230.0</ele><time>2026-04-03T09:10:28Z</time></trkpt><trkpt lat="44.113094843703685" lon="3.887996760214633"><ele>228.0</ele><time>2026-04-03T09:10:29Z</time></trkpt><trkpt lat="44.1129805106596" lon="3.8879274317357044"><ele>227.25</ele><time>2026-04-03T09:10:30Z</time></trkpt><trkpt lat="44.11285131235053" lon="3.8879066188915"><ele>226.5</ele><time>2026-04-03T09:10:31Z</time></trkpt><trkpt lat="44.112722076099985" lon="3.8879358687905565"><ele>225.75</ele><time>2026-04-03T09:10:32Z</time></trkpt><trkpt lat="44.112592194539424" lon="3.8880071881604135"><ele>225.0</ele><time>2026-04-03T09:10:33Z</time></trkpt><trkpt lat="44.112459787235224" lon="3.8880860843650265"><ele>226.0</ele><time>2026-04-03T09:10:34Z</time></trkpt><trkpt lat="44.1123227351136" lon="3.8881677738345064"><ele>227.0</ele><time>2026-04-03T09:10:35Z</time></trkpt><trkpt lat="44.11219303003486" lon="3.888241721462169"><ele>228.0</ele><time>2026-04-03T09:10:36Z</time></trkpt><trkpt lat="44.112069523409566" lon="3.8883074308842898"><ele>229.0</ele><time>2026-04-03T09:10:37Z</time></trkpt><trkpt lat="44.11194980135994" lon="3.888371735913068"><ele>226.25</ele><time>2026-04-03T09:10:38Z</time></trkpt><trkpt lat="44.11184044374525" lon="3.888451456828526"><ele>223.5</ele><time>2026-04-03T09:10:39Z</time></trkpt><trkpt lat="44.11174808057891" lon="3.888552462611895"><ele>220.75</ele><time>2026-04-03T09:10:40Z</time></trkpt><trkpt lat="44.11168880056908" lon="3.8886802821160824"><ele>218.0</ele><time>2026-04-03T09:10:41Z</time></trkpt><trkpt lat="44.111656562936055" lon="3.8888118984909044"><ele>218.0</ele><time>2026-04-03T09:10:42Z</time></trkpt><trkpt lat="44.11162951708814" lon="3.888929410960358"><ele>218.0</ele><time>2026-04-03T09:10:43Z</time></trkpt><trkpt lat="44.11160506642548" lon="3.889066224173464"><ele>218.0</ele><time>2026-04-03T09:10:45Z</time></trkpt><trkpt lat="44.11158820312299" lon="3.889166004515336"><ele>218.0</ele><time>2026-04-03T09:10:48Z</time></trkpt><trkpt lat="44.111764178570866" lon="3.889256963065909"><ele>216.5</ele><time>2026-04-03T09:10:50Z</time></trkpt><trkpt lat="44.11188998488663" lon="3.889292390546264"><ele>215.0</ele><time>2026-04-03T09:10:51Z</time></trkpt><trkpt lat="44.1119722360468" lon="3.8893957489620474"><ele>213.5</ele><time>2026-04-03T09:10:52Z</time></trkpt><trkpt lat="44.11202195501108" lon="3.8895275095753994"><ele>212.0</ele><time>2026-04-03T09:10:53Z</time></trkpt><trkpt lat="44.112047384471175" lon="3.889672369432561"><ele>212.0</ele><time>2026-04-03T09:10:54Z</time></trkpt><trkpt lat="44.11205447236627" lon="3.8898529343823673"><ele>212.0</ele><time>2026-04-03T09:10:55Z</time></trkpt><trkpt lat="44.11208421089034" lon="3.8900259267217647"><ele>212.0</ele><time>2026-04-03T09:10:56Z</time></trkpt><trkpt lat="44.1121621156119" lon="3.890137610073612"><ele>212.0</ele><time>2026-04-03T09:10:57Z</time></trkpt><trkpt lat="44.1122916193673" lon="3.890198005995873"><ele>214.0</ele><time>2026-04-03T09:10:58Z</time></trkpt><trkpt lat="44.11243041893847" lon="3.890246815890885"><ele>216.0</ele><time>2026-04-03T09:10:59Z</time></trkpt><trkpt lat="44.11250890776313" lon="3.890404304992598"><ele>218.0</ele><time>2026-04-03T09:11:00Z</time></trkpt><trkpt lat="44.11260768678787" lon="3.8905693213120007"><ele>220.0</ele><time>2026-04-03T09:11:01Z</time></trkpt><trkpt lat="44.11271196739513" lon="3.890719016373491"><ele>220.0</ele><time>2026-04-03T09:11:02Z</time></trkpt><trkpt lat="44.112860670731756" lon="3.89078551091844"><ele>220.0</ele><time>2026-04-03T09:11:03Z</time></trkpt><trkpt lat="44.11300952317277" lon="3.890780701023575"><ele>220.0</ele><time>2026-04-03T09:11:04Z</time></trkpt><trkpt lat="44.11315242719898" lon="3.890688036017777"><ele>223.0</ele><time>2026-04-03T09:11:05Z</time></trkpt><trkpt lat="44.11326815803395" lon="3.890546754236531"><ele>226.0</ele><time>2026-04-03T09:11:06Z</time></trkpt><trkpt lat="44.113363182238714" lon="3.890394891661953"><ele>229.0</ele><time>2026-04-03T09:11:07Z</time></trkpt><trkpt lat="44.11345843660097" lon="3.8903193117225725"><ele>232.0</ele><time>2026-04-03T09:11:08Z</time></trkpt><trkpt lat="44.113555564537094" lon="3.8903692538458676"><ele>232.0</ele><time>2026-04-03T09:11:09Z</time></trkpt><trkpt lat="44.113627537444586" lon="3.890482543328795"><ele>232.0</ele><time>2026-04-03T09:11:10Z</time></trkpt><trkpt lat="44.11364484916709" lon="3.8906544603095563"><ele>232.0</ele><time>2026-04-03T09:11:11Z</time></trkpt><trkpt lat="44.11361933045884" lon="3.8908370343382455"><ele>232.0</ele><time>2026-04-03T09:11:12Z</time></trkpt><trkpt lat="44.113544821399024" lon="3.8910271610843044"><ele>230.75</ele><time>2026-04-03T09:11:13Z</time></trkpt><trkpt lat="44.11347767191108" lon="3.8911820134319854"><ele>229.5</ele><time>2026-04-03T09:11:14Z</time></trkpt><trkpt lat="44.113467379122724" lon="3.8913362311065898"><ele>228.25</ele><time>2026-04-03T09:11:15Z</time></trkpt><trkpt lat="44.113528911695354" lon="3.8914897108524755"><ele>227.0</ele><time>2026-04-03T09:11:16Z</time></trkpt><trkpt lat="44.113639571230195" lon="3.8915991824639202"><ele>227.0</ele><time>2026-04-03T09:11:17Z</time></trkpt><trkpt lat="44.11376709988805" lon="3.891642188321199"><ele>227.0</ele><time>2026-04-03T09:11:18Z</time></trkpt><trkpt lat="44.113917582781895" lon="3.8916267746221322"><ele>227.0</ele><time>2026-04-03T09:11:19Z</time></trkpt><trkpt lat="44.11408124444152" lon="3.89163960226481"><ele>227.0</ele><time>2026-04-03T09:11:20Z</time></trkpt><trkpt lat="44.11424005084825" lon="3.8917477651455843"><ele>229.5</ele><time>2026-04-03T09:11:21Z</time></trkpt><trkpt lat="44.114368108791005" lon="3.8918583316341997"><ele>232.0</ele><time>2026-04-03T09:11:22Z</time></trkpt><trkpt lat="44.114461584600285" lon="3.8919562993060444"><ele>234.5</ele><time>2026-04-03T09:11:23Z</time></trkpt><trkpt lat="44.114500721188996" lon="3.892088647591357"><ele>237.0</ele><time>2026-04-03T09:11:24Z</time></trkpt><trkpt lat="44.11449874612647" lon="3.8922466227244525"><ele>237.0</ele><time>2026-04-03T09:11:25Z</time></trkpt><trkpt lat="44.114475214244706" lon="3.8924109797889974"><ele>237.0</ele><time>2026-04-03T09:11:26Z</time></trkpt><trkpt lat="44.11448634305889" lon="3.89257764985833"><ele>237.0</ele><time>2026-04-03T09:11:27Z</time></trkpt><trkpt lat="44.11454306849882" lon="3.8927401625807936"><ele>237.0</ele><time>2026-04-03T09:11:28Z</time></trkpt><trkpt lat="44.11462973622201" lon="3.8928944461658737"><ele>236.75</ele><time>2026-04-03T09:11:29Z</time></trkpt><trkpt lat="44.11471130000226" lon="3.893049942648134"><ele>236.5</ele><time>2026-04-03T09:11:30Z</time></trkpt><trkpt lat="44.114788626070634" lon="3.8932076877850355"><ele>236.25</ele><time>2026-04-03T09:11:31Z</time></trkpt><trkpt lat="44.11486375047397" lon="3.8933555963488935"><ele>236.0</ele><time>2026-04-03T09:11:32Z</time></trkpt><trkpt lat="44.11492539090148" lon="3.8935230366905533"><ele>238.75</ele><time>2026-04-03T09:11:33Z</time></trkpt><trkpt lat="44.11492720419704" lon="3.893715435571192"><ele>241.5</ele><time>2026-04-03T09:11:34Z</time></trkpt><trkpt lat="44.114949949565705" lon="3.8939130349273703"><ele>244.25</ele><time>2026-04-03T09:11:35Z</time></trkpt><trkpt lat="44.114985853708994" lon="3.8940853307846273"><ele>247.0</ele><time>2026-04-03T09:11:36Z</time></trkpt><trkpt lat="44.11509126376745" lon="3.894217480702403"><ele>247.0</ele><time>2026-04-03T09:11:37Z</time></trkpt><trkpt lat="44.11524302881815" lon="3.8943188427921767"><ele>247.0</ele><time>2026-04-03T09:11:38Z</time></trkpt><trkpt lat="44.115419022642605" lon="3.8944193441625616"><ele>247.0</ele><time>2026-04-03T09:11:39Z</time></trkpt><trkpt lat="44.11556383987825" lon="3.894523923469803"><ele>247.0</ele><time>2026-04-03T09:11:40Z</time></trkpt><trkpt lat="44.115671704771756" lon="3.8946351367330565"><ele>247.0</ele><time>2026-04-03T09:11:41Z</time></trkpt><trkpt lat="44.11573211310042" lon="3.8947681389255586"><ele>247.0</ele><time>2026-04-03T09:11:42Z</time></trkpt><trkpt lat="44.11572559116171" lon="3.8949230989904855"><ele>247.0</ele><time>2026-04-03T09:11:43Z</time></trkpt><trkpt lat="44.11568091051768" lon="3.895082360194636"><ele>249.0</ele><time>2026-04-03T09:11:44Z</time></trkpt><trkpt lat="44.11562947556144" lon="3.8952583237640415"><ele>251.0</ele><time>2026-04-03T09:11:45Z</time></trkpt><trkpt lat="44.11561028300363" lon="3.895432634197508"><ele>253.0</ele><time>2026-04-03T09:11:46Z</time></trkpt><trkpt lat="44.11563418247859" lon="3.895597497372525"><ele>255.0</ele><time>2026-04-03T09:11:47Z</time></trkpt><trkpt lat="44.11571389520234" lon="3.895716320377605"><ele>257.5</ele><time>2026-04-03T09:11:48Z</time></trkpt><trkpt lat="44.11584628872849" lon="3.8958132781880646"><ele>260.0</ele><time>2026-04-03T09:11:49Z</time></trkpt><trkpt lat="44.115971159600576" lon="3.895922899771201"><ele>262.5</ele><time>2026-04-03T09:11:50Z</time></trkpt><trkpt lat="44.11603860803445" lon="3.896088957740441"><ele>265.0</ele><time>2026-04-03T09:11:51Z</time></trkpt><trkpt lat="44.115999295803014" lon="3.896285616316576"><ele>265.5</ele><time>2026-04-03T09:11:52Z</time></trkpt><trkpt lat="44.11597861317104" lon="3.8964959924428655"><ele>266.0</ele><time>2026-04-03T09:11:53Z</time></trkpt><trkpt lat="44.115978139852984" lon="3.8966962308207687"><ele>266.5</ele><time>2026-04-03T09:11:54Z</time></trkpt><trkpt lat="44.11603531790885" lon="3.8968866599828837"><ele>267.0</ele><time>2026-04-03T09:11:55Z</time></trkpt><trkpt lat="44.11614544664391" lon="3.89704658730267"><ele>268.0</ele><time>2026-04-03T09:11:56Z</time></trkpt><trkpt lat="44.116290130987565" lon="3.8971649591702002"><ele>269.0</ele><time>2026-04-03T09:11:57Z</time></trkpt><trkpt lat="44.11643903155223" lon="3.8972718825730173"><ele>270.0</ele><time>2026-04-03T09:11:58Z</time></trkpt><trkpt lat="44.11658263639649" lon="3.8973758030165397"><ele>272.6666666666667</ele><time>2026-04-03T09:11:59Z</time></trkpt><trkpt lat="44.1167218093474" lon="3.8974921733941783"><ele>275.33333333333337</ele><time>2026-04-03T09:12:00Z</time></trkpt><trkpt lat="44.116851443892486" lon="3.897606755347905"><ele>278.0</ele><time>2026-04-03T09:12:01Z</time></trkpt><trkpt lat="44.1169489175844" lon="3.8977423501528525"><ele>278.75</ele><time>2026-04-03T09:12:02Z</time></trkpt><trkpt lat="44.11700135780145" lon="3.8979000583346983"><ele>279.5</ele><time>2026-04-03T09:12:03Z</time></trkpt><trkpt lat="44.11698424320804" lon="3.89808134401401"><ele>280.25</ele><time>2026-04-03T09:12:04Z</time></trkpt><trkpt lat="44.11697639585234" lon="3.898273995289395"><ele>281.0</ele><time>2026-04-03T09:12:05Z</time></trkpt><trkpt lat="44.117019175733375" lon="3.898441676992271"><ele>281.0</ele><time>2026-04-03T09:12:06Z</time></trkpt><trkpt lat="44.11711878488459" lon="3.8985373554195797"><ele>281.0</ele><time>2026-04-03T09:12:07Z</time></trkpt><trkpt lat="44.11724416983998" lon="3.8985984754287233"><ele>281.0</ele><time>2026-04-03T09:12:08Z</time></trkpt><trkpt lat="44.11740351516437" lon="3.8986189193326335"><ele>281.0</ele><time>2026-04-03T09:12:09Z</time></trkpt><trkpt lat="44.117595463817764" lon="3.8986148008301096"><ele>275.6666666666667</ele><time>2026-04-03T09:12:10Z</time></trkpt><trkpt lat="44.11779777218876" lon="3.8986584967707287"><ele>270.3333333333333</ele><time>2026-04-03T09:12:11Z</time></trkpt><trkpt lat="44.11795634220588" lon="3.8987826787784714"><ele>265.0</ele><time>2026-04-03T09:12:12Z</time></trkpt><trkpt lat="44.118111497253544" lon="3.898911049124755"><ele>265.66666666666663</ele><time>2026-04-03T09:12:13Z</time></trkpt><trkpt lat="44.11827092102448" lon="3.8989784574292847"><ele>266.3333333333333</ele><time>2026-04-03T09:12:14Z</time></trkpt><trkpt lat="44.11844289561598" lon="3.8989942945047753"><ele>267.0</ele><time>2026-04-03T09:12:15Z</time></trkpt><trkpt lat="44.11864465623968" lon="3.898961227460971"><ele>267.0</ele><time>2026-04-03T09:12:16Z</time></trkpt><trkpt lat="44.118835685137036" lon="3.8989463773186834"><ele>267.0</ele><time>2026-04-03T09:12:17Z</time></trkpt><trkpt lat="44.118995341775936" lon="3.8989670319899874"><ele>267.0</ele><time>2026-04-03T09:12:18Z</time></trkpt><trkpt lat="44.11913317867334" lon="3.899076634395732"><ele>268.25</ele><time>2026-04-03T09:12:19Z</time></trkpt><trkpt lat="44.11923951361148" lon="3.8992295713732745"><ele>269.5</ele><time>2026-04-03T09:12:20Z</time></trkpt><trkpt lat="44.1193443311536" lon="3.899358996033576"><ele>270.75</ele><time>2026-04-03T09:12:21Z</time></trkpt><trkpt lat="44.11945717258413" lon="3.899446959723484"><ele>272.0</ele><time>2026-04-03T09:12:22Z</time></trkpt><trkpt lat="44.11959141067134" lon="3.899445622299863"><ele>272.0</ele><time>2026-04-03T09:12:23Z</time></trkpt><trkpt lat="44.119724560555724" lon="3.8993680246293025"><ele>272.0</ele><time>2026-04-03T09:12:24Z</time></trkpt><trkpt lat="44.11984420831574" lon="3.899242535483887"><ele>272.0</ele><time>2026-04-03T09:12:25Z</time></trkpt><trkpt lat="44.11996455956284" lon="3.899155802582656"><ele>272.0</ele><time>2026-04-03T09:12:26Z</time></trkpt><trkpt lat="44.12009573858957" lon="3.89920849467151"><ele>265.6666666666667</ele><time>2026-04-03T09:12:27Z</time></trkpt><trkpt lat="44.12021717147107" lon="3.899313480212304"><ele>259.3333333333333</ele><time>2026-04-03T09:12:28Z</time></trkpt><trkpt lat="44.120262062816664" lon="3.8995109837261253"><ele>253.0</ele><time>2026-04-03T09:12:29Z</time></trkpt><trkpt lat="44.12023342538728" lon="3.8997306628352035"><ele>253.0</ele><time>2026-04-03T09:12:30Z</time></trkpt><trkpt lat="44.120218069487244" lon="3.8999446172433374"><ele>253.0</ele><time>2026-04-03T09:12:31Z</time></trkpt><trkpt lat="44.120234275830086" lon="3.900128835905268"><ele>253.0</ele><time>2026-04-03T09:12:32Z</time></trkpt><trkpt lat="44.120331203637434" lon="3.9002621567704105"><ele>253.0</ele><time>2026-04-03T09:12:33Z</time></trkpt><trkpt lat="44.120456679428365" lon="3.9003187868254745"><ele>253.25</ele><time>2026-04-03T09:12:34Z</time></trkpt><trkpt lat="44.12060800845458" lon="3.9003709853779016"><ele>253.5</ele><time>2026-04-03T09:12:35Z</time></trkpt><trkpt lat="44.12071397787232" lon="3.9004891019501695"><ele>253.75</ele><time>2026-04-03T09:12:36Z</time></trkpt><trkpt lat="44.120775319009454" lon="3.900677803072597"><ele>254.0</ele><time>2026-04-03T09:12:37Z</time></trkpt><trkpt lat="44.12077438405596" lon="3.9008820365065153"><ele>251.75</ele><time>2026-04-03T09:12:38Z</time></trkpt><trkpt lat="44.120789223550936" lon="3.901082158734165"><ele>249.5</ele><time>2026-04-03T09:12:39Z</time></trkpt><trkpt lat="44.12080977026758" lon="3.9012639732739838"><ele>247.25</ele><time>2026-04-03T09:12:40Z</time></trkpt><trkpt lat="44.120891357049" lon="3.9014034104274287"><ele>245.0</ele><time>2026-04-03T09:12:41Z</time></trkpt><trkpt lat="44.12102845829297" lon="3.9014733509332054"><ele>245.0</ele><time>2026-04-03T09:12:42Z</time></trkpt><trkpt lat="44.121190658306574" lon="3.9014675903344966"><ele>245.0</ele><time>2026-04-03T09:12:43Z</time></trkpt><trkpt lat="44.12133295410984" lon="3.9013826353816223"><ele>245.0</ele><time>2026-04-03T09:12:44Z</time></trkpt><trkpt lat="44.12144564067648" lon="3.901245745699968"><ele>245.0</ele><time>2026-04-03T09:12:45Z</time></trkpt><trkpt lat="44.12156098186979" lon="3.9011388456967135"><ele>245.0</ele><time>2026-04-03T09:12:46Z</time></trkpt><trkpt lat="44.12168879913861" lon="3.9011247648297434"><ele>245.0</ele><time>2026-04-03T09:12:47Z</time></trkpt><trkpt lat="44.121818979768975" lon="3.9011900423159607"><ele>245.0</ele><time>2026-04-03T09:12:48Z</time></trkpt><trkpt lat="44.121949938759826" lon="3.9013349913998354"><ele>244.0</ele><time>2026-04-03T09:12:49Z</time></trkpt><trkpt lat="44.12210721053765" lon="3.9015145355840284"><ele>243.0</ele><time>2026-04-03T09:12:50Z</time></trkpt><trkpt lat="44.12226003553483" lon="3.901682531779813"><ele>242.0</ele><time>2026-04-03T09:12:51Z</time></trkpt><trkpt lat="44.12241061116012" lon="3.9018406730307804"><ele>239.66666666666669</ele><time>2026-04-03T09:12:52Z</time></trkpt><trkpt lat="44.12254256574859" lon="3.9019996419320977"><ele>237.33333333333331</ele><time>2026-04-03T09:12:53Z</time></trkpt><trkpt lat="44.12261628428408" lon="3.9021990521545296"><ele>235.0</ele><time>2026-04-03T09:12:54Z</time></trkpt><trkpt lat="44.12267459368425" lon="3.9024034580656237"><ele>233.0</ele><time>2026-04-03T09:12:55Z</time></trkpt><trkpt lat="44.12269885247527" lon="3.9026039643754125"><ele>231.0</ele><time>2026-04-03T09:12:56Z</time></trkpt><trkpt lat="44.122783434191604" lon="3.9027588037856313"><ele>229.0</ele><time>2026-04-03T09:12:57Z</time></trkpt><trkpt lat="44.122922581567416" lon="3.9028376764471213"><ele>227.0</ele><time>2026-04-03T09:12:58Z</time></trkpt><trkpt lat="44.1230991032511" lon="3.9028160091721276"><ele>223.33333333333334</ele><time>2026-04-03T09:12:59Z</time></trkpt><trkpt lat="44.123292952185956" lon="3.902790008874481"><ele>219.66666666666669</ele><time>2026-04-03T09:13:00Z</time></trkpt><trkpt lat="44.123503057499974" lon="3.9027766697387207"><ele>216.0</ele><time>2026-04-03T09:13:01Z</time></trkpt><trkpt lat="44.123700700899555" lon="3.902769172523607"><ele>216.0</ele><time>2026-04-03T09:13:02Z</time></trkpt><trkpt lat="44.123880718256025" lon="3.902736285379306"><ele>216.0</ele><time>2026-04-03T09:13:03Z</time></trkpt><trkpt lat="44.12407244857513" lon="3.902670730301242"><ele>216.0</ele><time>2026-04-03T09:13:04Z</time></trkpt><trkpt lat="44.12424885165944" lon="3.902585049148497"><ele>220.0</ele><time>2026-04-03T09:13:05Z</time></trkpt><trkpt lat="44.12442394827057" lon="3.9025072958259677"><ele>224.0</ele><time>2026-04-03T09:13:06Z</time></trkpt><trkpt lat="44.12455435635881" lon="3.9024153676662205"><ele>228.0</ele><time>2026-04-03T09:13:07Z</time></trkpt><trkpt lat="44.12467903423096" lon="3.9023143733859573"><ele>228.0</ele><time>2026-04-03T09:13:08Z</time></trkpt><trkpt lat="44.124758012445795" lon="3.9021558091701287"><ele>228.0</ele><time>2026-04-03T09:13:09Z</time></trkpt><trkpt lat="44.12479068999857" lon="3.901953879960455"><ele>228.0</ele><time>2026-04-03T09:13:10Z</time></trkpt><trkpt lat="44.124793630359605" lon="3.9017386781957515"><ele>228.0</ele><time>2026-04-03T09:13:11Z</time></trkpt><trkpt lat="44.12486554303415" lon="3.901582863488235"><ele>226.0</ele><time>2026-04-03T09:13:12Z</time></trkpt><trkpt lat="44.12497167720436" lon="3.901463435870765"><ele>224.0</ele><time>2026-04-03T09:13:13Z</time></trkpt><trkpt lat="44.125132023726806" lon="3.9014427820842026"><ele>222.0</ele><time>2026-04-03T09:13:14Z</time></trkpt><trkpt lat="44.12527945541381" lon="3.9015417910079018"><ele>222.0</ele><time>2026-04-03T09:13:15Z</time></trkpt><trkpt lat="44.12538457518731" lon="3.9017045587503487"><ele>222.0</ele><time>2026-04-03T09:13:16Z</time></trkpt><trkpt lat="44.12546143845061" lon="3.9019165394832087"><ele>222.0</ele><time>2026-04-03T09:13:17Z</time></trkpt><trkpt lat="44.125556190906316" lon="3.902137775488272"><ele>218.66666666666669</ele><time>2026-04-03T09:13:18Z</time></trkpt><trkpt lat="44.125639576441" lon="3.9023385208263996"><ele>215.33333333333334</ele><time>2026-04-03T09:13:19Z</time></trkpt><trkpt lat="44.12577178017834" lon="3.902478102974165"><ele>212.0</ele><time>2026-04-03T09:13:20Z</time></trkpt><trkpt lat="44.125935435528206" lon="3.9025601439159106"><ele>209.66666666666669</ele><time>2026-04-03T09:13:21Z</time></trkpt><trkpt lat="44.126114013755824" lon="3.9025706246162715"><ele>207.33333333333331</ele><time>2026-04-03T09:13:22Z</time></trkpt><trkpt lat="44.12628608518647" lon="3.90252811101767"><ele>205.0</ele><time>2026-04-03T09:13:23Z</time></trkpt><trkpt lat="44.12644280081174" lon="3.902493513276193"><ele>206.25</ele><time>2026-04-03T09:13:24Z</time></trkpt><trkpt lat="44.126567653927886" lon="3.902573174796761"><ele>207.5</ele><time>2026-04-03T09:13:25Z</time></trkpt><trkpt lat="44.12665525222116" lon="3.9027188626556835"><ele>208.75</ele><time>2026-04-03T09:13:26Z</time></trkpt><trkpt lat="44.12672703708252" lon="3.902866428463709"><ele>210.0</ele><time>2026-04-03T09:13:27Z</time></trkpt><trkpt lat="44.1267716950497" lon="3.90300762516232"><ele>208.83333333333334</ele><time>2026-04-03T09:13:28Z</time></trkpt><trkpt lat="44.126776637396894" lon="3.9031208021407635"><ele>207.66666666666669</ele><time>2026-04-03T09:13:29Z</time></trkpt><trkpt lat="44.12675744125205" lon="3.903211349195017"><ele>206.5</ele><time>2026-04-03T09:13:30Z</time></trkpt><trkpt lat="44.12675730765682" lon="3.9033016301523196"><ele>205.33333333333334</ele><time>2026-04-03T09:13:31Z</time></trkpt><trkpt lat="44.12673215785966" lon="3.9034053974226235"><ele>204.16666666666669</ele><time>2026-04-03T09:13:33Z</time></trkpt><trkpt lat="44.12672449222677" lon="3.9035198481159905"><ele>203.0</ele><time>2026-04-03T09:15:42Z</time></trkpt><trkpt lat="44.12669580237844" lon="3.9036462004922403"><ele>203.0</ele><time>2026-04-03T09:15:43Z</time></trkpt><trkpt lat="44.12669367996699" lon="3.9037763497049998"><ele>203.0</ele><time>2026-04-03T09:15:44Z</time></trkpt><trkpt lat="44.12667493199141" lon="3.9038962176236205"><ele>203.0</ele><time>2026-04-03T09:15:45Z</time></trkpt><trkpt lat="44.126638912336844" lon="3.9040212403101027"><ele>203.0</ele><time>2026-04-03T09:15:46Z</time></trkpt><trkpt lat="44.1265627486663" lon="3.9041179218376807"><ele>203.0</ele><time>2026-04-03T09:15:47Z</time></trkpt><trkpt lat="44.126477684431926" lon="3.904182665142639"><ele>204.0</ele><time>2026-04-03T09:15:48Z</time></trkpt><trkpt lat="44.126390602311545" lon="3.904177744400135"><ele>205.0</ele><time>2026-04-03T09:15:49Z</time></trkpt><trkpt lat="44.12630891640981" lon="3.9042172853235315"><ele>206.0</ele><time>2026-04-03T09:15:50Z</time></trkpt><trkpt lat="44.1262299717649" lon="3.9042409943871075"><ele>207.0</ele><time>2026-04-03T09:15:51Z</time></trkpt><trkpt lat="44.12614791865072" lon="3.904308829913456"><ele>208.0</ele><time>2026-04-03T09:15:52Z</time></trkpt><trkpt lat="44.12607611931623" lon="3.9044450152159618"><ele>208.0</ele><time>2026-04-03T09:15:53Z</time></trkpt><trkpt lat="44.126030565150415" lon="3.904597284684816"><ele>208.0</ele><time>2026-04-03T09:15:54Z</time></trkpt><trkpt lat="44.12600007856589" lon="3.9047292275961847"><ele>208.0</ele><time>2026-04-03T09:15:55Z</time></trkpt><trkpt lat="44.12595893012696" lon="3.904857564184514"><ele>208.0</ele><time>2026-04-03T09:15:56Z</time></trkpt><trkpt lat="44.125902218516636" lon="3.9049809010653114"><ele>208.0</ele><time>2026-04-03T09:15:57Z</time></trkpt><trkpt lat="44.12583717303878" lon="3.90510930224301"><ele>208.25</ele><time>2026-04-03T09:15:58Z</time></trkpt><trkpt lat="44.125771883062335" lon="3.9052370700516303"><ele>208.5</ele><time>2026-04-03T09:15:59Z</time></trkpt><trkpt lat="44.12570875417291" lon="3.9053637003205735"><ele>208.75</ele><time>2026-04-03T09:16:00Z</time></trkpt><trkpt lat="44.125653659789634" lon="3.9054980252930145"><ele>209.0</ele><time>2026-04-03T09:16:01Z</time></trkpt><trkpt lat="44.12562951573913" lon="3.9056604672220465"><ele>207.0</ele><time>2026-04-03T09:16:02Z</time></trkpt><trkpt lat="44.12564474564764" lon="3.9058422034747107"><ele>205.0</ele><time>2026-04-03T09:16:03Z</time></trkpt><trkpt lat="44.125698348848495" lon="3.9060258864454167"><ele>203.0</ele><time>2026-04-03T09:16:04Z</time></trkpt><trkpt lat="44.125794112423236" lon="3.906200241999937"><ele>201.0</ele><time>2026-04-03T09:16:05Z</time></trkpt><trkpt lat="44.12589725261916" lon="3.906372728671215"><ele>201.0</ele><time>2026-04-03T09:16:06Z</time></trkpt><trkpt lat="44.12602851790459" lon="3.906578269934278"><ele>201.0</ele><time>2026-04-03T09:16:07Z</time></trkpt><trkpt lat="44.126177120975626" lon="3.90680762046403"><ele>201.0</ele><time>2026-04-03T09:16:08Z</time></trkpt><trkpt lat="44.12634585463064" lon="3.907042496732303"><ele>205.0</ele><time>2026-04-03T09:16:09Z</time></trkpt><trkpt lat="44.12652849448758" lon="3.9072490644086106"><ele>209.0</ele><time>2026-04-03T09:16:10Z</time></trkpt><trkpt lat="44.12673370111636" lon="3.907437457470728"><ele>206.33333333333334</ele><time>2026-04-03T09:16:11Z</time></trkpt><trkpt lat="44.126931494255835" lon="3.907596254856237"><ele>203.66666666666669</ele><time>2026-04-03T09:16:12Z</time></trkpt><trkpt lat="44.127107205355074" lon="3.9077382454785905"><ele>201.0</ele><time>2026-04-03T09:16:13Z</time></trkpt><trkpt lat="44.12726465154394" lon="3.9078807118789225"><ele>207.33333333333331</ele><time>2026-04-03T09:16:14Z</time></trkpt><trkpt lat="44.127409682700595" lon="3.90801420318759"><ele>213.66666666666666</ele><time>2026-04-03T09:16:15Z</time></trkpt><trkpt lat="44.127502766666964" lon="3.908175408525199"><ele>220.0</ele><time>2026-04-03T09:16:16Z</time></trkpt><trkpt lat="44.1275498157179" lon="3.9083531663710906"><ele>219.5</ele><time>2026-04-03T09:16:17Z</time></trkpt><trkpt lat="44.127531032942436" lon="3.9085436986078137"><ele>219.0</ele><time>2026-04-03T09:16:18Z</time></trkpt><trkpt lat="44.12747467202329" lon="3.9087226366490033"><ele>218.5</ele><time>2026-04-03T09:16:19Z</time></trkpt><trkpt lat="44.127386759287624" lon="3.9088418580566464"><ele>218.0</ele><time>2026-04-03T09:16:20Z</time></trkpt><trkpt lat="44.127255841312426" lon="3.908920633508685"><ele>218.0</ele><time>2026-04-03T09:16:21Z</time></trkpt><trkpt lat="44.127077125319666" lon="3.908935165028908"><ele>218.0</ele><time>2026-04-03T09:16:22Z</time></trkpt><trkpt lat="44.12688735975854" lon="3.9089679025052053"><ele>218.0</ele><time>2026-04-03T09:16:23Z</time></trkpt><trkpt lat="44.126692659522156" lon="3.9089860164645307"><ele>216.33333333333334</ele><time>2026-04-03T09:16:24Z</time></trkpt><trkpt lat="44.126510738554565" lon="3.9090969558142654"><ele>214.66666666666669</ele><time>2026-04-03T09:16:25Z</time></trkpt><trkpt lat="44.126348441329995" lon="3.9092753652622823"><ele>213.0</ele><time>2026-04-03T09:16:26Z</time></trkpt><trkpt lat="44.126210430400626" lon="3.909507788179405"><ele>213.0</ele><time>2026-04-03T09:16:27Z</time></trkpt><trkpt lat="44.12609484897248" lon="3.909784861435255"><ele>213.0</ele><time>2026-04-03T09:16:28Z</time></trkpt><trkpt lat="44.12599897038017" lon="3.910078180746927"><ele>214.66666666666669</ele><time>2026-04-03T09:16:29Z</time></trkpt><trkpt lat="44.125920871816014" lon="3.9103430012336147"><ele>216.33333333333334</ele><time>2026-04-03T09:16:30Z</time></trkpt><trkpt lat="44.125868150764575" lon="3.9106058570674165"><ele>218.0</ele><time>2026-04-03T09:16:31Z</time></trkpt><trkpt lat="44.12585557426594" lon="3.9108841674272075"><ele>217.66666666666669</ele><time>2026-04-03T09:16:32Z</time></trkpt><trkpt lat="44.12586326897905" lon="3.911163535897363"><ele>217.33333333333331</ele><time>2026-04-03T09:16:33Z</time></trkpt><trkpt lat="44.12587194017049" lon="3.9114206033996735"><ele>217.0</ele><time>2026-04-03T09:16:34Z</time></trkpt><trkpt lat="44.12587924288216" lon="3.9116465646428424"><ele>213.33333333333331</ele><time>2026-04-03T09:16:35Z</time></trkpt><trkpt lat="44.125922589388104" lon="3.9118496993094203"><ele>209.66666666666669</ele><time>2026-04-03T09:16:36Z</time></trkpt><trkpt lat="44.12601886112192" lon="3.91202998543941"><ele>206.0</ele><time>2026-04-03T09:16:37Z</time></trkpt><trkpt lat="44.12615813437942" lon="3.9121830990735242"><ele>206.0</ele><time>2026-04-03T09:16:38Z</time></trkpt><trkpt lat="44.1263377606254" lon="3.9123249549576142"><ele>206.0</ele><time>2026-04-03T09:16:39Z</time></trkpt><trkpt lat="44.126516388079025" lon="3.912459419899306"><ele>206.0</ele><time>2026-04-03T09:16:40Z</time></trkpt><trkpt lat="44.12669867379232" lon="3.9125669191497"><ele>207.5</ele><time>2026-04-03T09:16:41Z</time></trkpt><trkpt lat="44.12686770787605" lon="3.912642363453626"><ele>209.0</ele><time>2026-04-03T09:16:42Z</time></trkpt><trkpt lat="44.12699986954354" lon="3.9126810138971284"><ele>210.5</ele><time>2026-04-03T09:16:43Z</time></trkpt><trkpt lat="44.12709950463055" lon="3.9127359021261636"><ele>212.0</ele><time>2026-04-03T09:16:44Z</time></trkpt><trkpt lat="44.12714809280958" lon="3.912847697111835"><ele>212.0</ele><time>2026-04-03T09:16:45Z</time></trkpt><trkpt lat="44.12717898446874" lon="3.9129579813349675"><ele>212.0</ele><time>2026-04-03T09:16:46Z</time></trkpt><trkpt lat="44.12714000627357" lon="3.9130758922159843"><ele>212.0</ele><time>2026-04-03T09:16:47Z</time></trkpt><trkpt lat="44.12705590677743" lon="3.913158032067985"><ele>212.0</ele><time>2026-04-03T09:16:48Z</time></trkpt><trkpt lat="44.12696167419219" lon="3.913269000198512"><ele>212.0</ele><time>2026-04-03T09:16:49Z</time></trkpt><trkpt lat="44.12684644780833" lon="3.9133828804643165"><ele>215.0</ele><time>2026-04-03T09:16:50Z</time></trkpt><trkpt lat="44.126739335495785" lon="3.9135083687063448"><ele>218.0</ele><time>2026-04-03T09:16:51Z</time></trkpt><trkpt lat="44.1266509039424" lon="3.9136070706909885"><ele>221.0</ele><time>2026-04-03T09:16:52Z</time></trkpt><trkpt lat="44.126573034379874" lon="3.9136949386496096"><ele>224.0</ele><time>2026-04-03T09:16:53Z</time></trkpt><trkpt lat="44.126464478299994" lon="3.9136269939639834"><ele>225.0</ele><time>2026-04-03T09:16:54Z</time></trkpt><trkpt lat="44.126363110390656" lon="3.913602150552845"><ele>225.99999999999997</ele><time>2026-04-03T09:16:55Z</time></trkpt><trkpt lat="44.126284898241856" lon="3.9135884626489967"><ele>226.99999999999997</ele><time>2026-04-03T09:16:56Z</time></trkpt><trkpt lat="44.12627367428508" lon="3.9137419004915293"><ele>228.0</ele><time>2026-04-03T09:16:59Z</time></trkpt><trkpt lat="44.12634475013377" lon="3.9137641866940873"><ele>229.0</ele><time>2026-04-03T09:17:00Z</time></trkpt><trkpt lat="44.12646202683286" lon="3.913760026973722"><ele>227.33333333333331</ele><time>2026-04-03T09:17:01Z</time></trkpt><trkpt lat="44.12661270087636" lon="3.9137657184157515"><ele>225.66666666666669</ele><time>2026-04-03T09:17:02Z</time></trkpt><trkpt lat="44.12677504085388" lon="3.913774504089435"><ele>224.0</ele><time>2026-04-03T09:17:03Z</time></trkpt><trkpt lat="44.126930659838195" lon="3.913782447538917"><ele>224.0</ele><time>2026-04-03T09:17:04Z</time></trkpt><trkpt lat="44.12709589572958" lon="3.913822741295472"><ele>224.0</ele><time>2026-04-03T09:17:05Z</time></trkpt><trkpt lat="44.12723396604463" lon="3.9139065844997947"><ele>224.0</ele><time>2026-04-03T09:17:06Z</time></trkpt><trkpt lat="44.12733605220052" lon="3.9140319818384723"><ele>224.75</ele><time>2026-04-03T09:17:07Z</time></trkpt><trkpt lat="44.12740960458712" lon="3.9141958025408607"><ele>225.5</ele><time>2026-04-03T09:17:08Z</time></trkpt><trkpt lat="44.12747006887717" lon="3.9143869026862204"><ele>226.25</ele><time>2026-04-03T09:17:09Z</time></trkpt><trkpt lat="44.12755961645819" lon="3.914556342097133"><ele>227.0</ele><time>2026-04-03T09:17:10Z</time></trkpt><trkpt lat="44.12767081225868" lon="3.9146803507062002"><ele>227.2</ele><time>2026-04-03T09:17:11Z</time></trkpt><trkpt lat="44.12777253741652" lon="3.914790632912249"><ele>227.39999999999998</ele><time>2026-04-03T09:17:12Z</time></trkpt><trkpt lat="44.12781488166991" lon="3.9149091734976995"><ele>227.60000000000002</ele><time>2026-04-03T09:17:13Z</time></trkpt><trkpt lat="44.127757773351334" lon="3.915012145680449"><ele>227.8</ele><time>2026-04-03T09:17:14Z</time></trkpt><trkpt lat="44.127701632996974" lon="3.9150892995593427"><ele>228.0</ele><time>2026-04-03T09:17:15Z</time></trkpt><trkpt lat="44.12766847617579" lon="3.9152016362063913"><ele>227.0</ele><time>2026-04-03T09:17:16Z</time></trkpt><trkpt lat="44.12766506590651" lon="3.9153059424496455"><ele>226.0</ele><time>2026-04-03T09:17:17Z</time></trkpt><trkpt lat="44.127701250663456" lon="3.9154006962969055"><ele>225.0</ele><time>2026-04-03T09:17:18Z</time></trkpt><trkpt lat="44.12775901684156" lon="3.9155140784059475"><ele>224.0</ele><time>2026-04-03T09:17:19Z</time></trkpt><trkpt lat="44.12784496842417" lon="3.915672672490425"><ele>223.0</ele><time>2026-04-03T09:17:20Z</time></trkpt><trkpt lat="44.12793649452367" lon="3.9158652638199287"><ele>222.75</ele><time>2026-04-03T09:17:21Z</time></trkpt><trkpt lat="44.12801980897212" lon="3.916063185119578"><ele>222.5</ele><time>2026-04-03T09:17:22Z</time></trkpt><trkpt lat="44.128096531059036" lon="3.9162399210641454"><ele>222.25</ele><time>2026-04-03T09:17:23Z</time></trkpt><trkpt lat="44.12816581155792" lon="3.91637622793986"><ele>222.0</ele><time>2026-04-03T09:17:24Z</time></trkpt><trkpt lat="44.12825632055493" lon="3.9164456302778548"><ele>228.0</ele><time>2026-04-03T09:17:25Z</time></trkpt><trkpt lat="44.1283612771063" lon="3.916464598882978"><ele>234.0</ele><time>2026-04-03T09:17:26Z</time></trkpt><trkpt lat="44.12848669270899" lon="3.9164298636313117"><ele>240.0</ele><time>2026-04-03T09:17:27Z</time></trkpt><trkpt lat="44.12862596604147" lon="3.9163770776307243"><ele>246.0</ele><time>2026-04-03T09:17:28Z</time></trkpt><trkpt lat="44.12878319698963" lon="3.9163213062105218"><ele>246.0</ele><time>2026-04-03T09:17:29Z</time></trkpt><trkpt lat="44.128947285601086" lon="3.916270536871608"><ele>246.0</ele><time>2026-04-03T09:17:30Z</time></trkpt><trkpt lat="44.12909752328165" lon="3.9162289124049616"><ele>246.0</ele><time>2026-04-03T09:17:31Z</time></trkpt><trkpt lat="44.129229400624496" lon="3.9161704581261927"><ele>248.20000000000002</ele><time>2026-04-03T09:17:32Z</time></trkpt><trkpt lat="44.129349252128506" lon="3.916126854379421"><ele>250.40000000000003</ele><time>2026-04-03T09:17:33Z</time></trkpt><trkpt lat="44.12944718187941" lon="3.916111275719043"><ele>252.6</ele><time>2026-04-03T09:17:34Z</time></trkpt><trkpt lat="44.12951945796901" lon="3.9161533397933095"><ele>254.8</ele><time>2026-04-03T09:17:35Z</time></trkpt><trkpt lat="44.129542490766205" lon="3.9162699993108396"><ele>257.0</ele><time>2026-04-03T09:17:36Z</time></trkpt><trkpt lat="44.12956524322658" lon="3.916389924088689"><ele>257.0</ele><time>2026-04-03T09:17:37Z</time></trkpt><trkpt lat="44.12957248108508" lon="3.9165199813640563"><ele>257.0</ele><time>2026-04-03T09:17:38Z</time></trkpt><trkpt lat="44.12950833304929" lon="3.916603567406257"><ele>257.0</ele><time>2026-04-03T09:17:39Z</time></trkpt><trkpt lat="44.12948365119501" lon="3.9167263490633037"><ele>257.0</ele><time>2026-04-03T09:17:40Z</time></trkpt><trkpt lat="44.12949366283634" lon="3.9168638262820594"><ele>257.0</ele><time>2026-04-03T09:17:41Z</time></trkpt><trkpt lat="44.129527414749084" lon="3.916965531935898"><ele>259.6666666666667</ele><time>2026-04-03T09:17:42Z</time></trkpt><trkpt lat="44.1295809725988" lon="3.9170516431853946"><ele>262.33333333333337</ele><time>2026-04-03T09:17:43Z</time></trkpt><trkpt lat="44.12964637571495" lon="3.9171002857543336"><ele>265.0</ele><time>2026-04-03T09:17:44Z</time></trkpt><trkpt lat="44.12972244061516" lon="3.917098049849605"><ele>267.6666666666667</ele><time>2026-04-03T09:17:45Z</time></trkpt><trkpt lat="44.12979827968493" lon="3.9170516627595213"><ele>270.3333333333333</ele><time>2026-04-03T09:17:46Z</time></trkpt><trkpt lat="44.129871178030314" lon="3.9169707646723273"><ele>273.0</ele><time>2026-04-03T09:17:47Z</time></trkpt><trkpt lat="44.12994163572172" lon="3.916875420480282"><ele>273.0</ele><time>2026-04-03T09:17:48Z</time></trkpt><trkpt lat="44.12997194368592" lon="3.9167521011397106"><ele>273.0</ele><time>2026-04-03T09:17:49Z</time></trkpt><trkpt lat="44.12995352657226" lon="3.916593517148866"><ele>273.0</ele><time>2026-04-03T09:17:50Z</time></trkpt><trkpt lat="44.1298953103231" lon="3.9164104789804255"><ele>273.0</ele><time>2026-04-03T09:17:51Z</time></trkpt><trkpt lat="44.129892213356364" lon="3.9161860608157273"><ele>270.6666666666667</ele><time>2026-04-03T09:17:52Z</time></trkpt><trkpt lat="44.129922957489505" lon="3.9159362065059393"><ele>268.33333333333337</ele><time>2026-04-03T09:17:53Z</time></trkpt><trkpt lat="44.12994954506555" lon="3.9156710617137014"><ele>266.0</ele><time>2026-04-03T09:17:54Z</time></trkpt><trkpt lat="44.129981949435525" lon="3.9154499816211876"><ele>265.6</ele><time>2026-04-03T09:17:55Z</time></trkpt><trkpt lat="44.13004428882962" lon="3.915285264938912"><ele>265.20000000000005</ele><time>2026-04-03T09:17:56Z</time></trkpt><trkpt lat="44.13006467602954" lon="3.915162701073481"><ele>264.79999999999995</ele><time>2026-04-03T09:17:57Z</time></trkpt><trkpt lat="44.13006617942609" lon="3.9150649313303747"><ele>264.4</ele><time>2026-04-03T09:17:58Z</time></trkpt><trkpt lat="44.130021065320925" lon="3.914955365687819"><ele>264.0</ele><time>2026-04-03T09:17:59Z</time></trkpt><trkpt lat="44.12991049657589" lon="3.9148951639932252"><ele>261.75</ele><time>2026-04-03T09:18:00Z</time></trkpt><trkpt lat="44.12979298740955" lon="3.9148394798424153"><ele>259.5</ele><time>2026-04-03T09:18:01Z</time></trkpt><trkpt lat="44.129647450570566" lon="3.9147880783855906"><ele>257.25</ele><time>2026-04-03T09:18:02Z</time></trkpt><trkpt lat="44.12948584942505" lon="3.9147308518047383"><ele>255.0</ele><time>2026-04-03T09:18:03Z</time></trkpt><trkpt lat="44.12935671365215" lon="3.9146964437494156"><ele>255.0</ele><time>2026-04-03T09:18:04Z</time></trkpt><trkpt lat="44.129252016708826" lon="3.914636496514008"><ele>255.0</ele><time>2026-04-03T09:18:05Z</time></trkpt><trkpt lat="44.12915546199674" lon="3.914512357299904"><ele>255.0</ele><time>2026-04-03T09:18:06Z</time></trkpt><trkpt lat="44.129059214332216" lon="3.91437570309067"><ele>255.0</ele><time>2026-04-03T09:18:07Z</time></trkpt><trkpt lat="44.12897681206033" lon="3.914251923233071"><ele>253.0</ele><time>2026-04-03T09:18:08Z</time></trkpt><trkpt lat="44.12894541433501" lon="3.9141158776803624"><ele>251.0</ele><time>2026-04-03T09:18:09Z</time></trkpt><trkpt lat="44.12898959579637" lon="3.913975367010956"><ele>249.0</ele><time>2026-04-03T09:18:10Z</time></trkpt><trkpt lat="44.12898868080094" lon="3.9137995152692624"><ele>247.0</ele><time>2026-04-03T09:18:11Z</time></trkpt><trkpt lat="44.12896211952861" lon="3.9136219213259937"><ele>247.0</ele><time>2026-04-03T09:18:12Z</time></trkpt><trkpt lat="44.128869127690066" lon="3.9134805317605377"><ele>247.0</ele><time>2026-04-03T09:18:13Z</time></trkpt><trkpt lat="44.128748986880524" lon="3.9133164510945613"><ele>247.0</ele><time>2026-04-03T09:18:14Z</time></trkpt><trkpt lat="44.12868482772953" lon="3.913077697139889"><ele>251.33333333333331</ele><time>2026-04-03T09:18:15Z</time></trkpt><trkpt lat="44.12861064080429" lon="3.912817836671457"><ele>255.66666666666669</ele><time>2026-04-03T09:18:16Z</time></trkpt><trkpt lat="44.12852901764699" lon="3.9126147608771555"><ele>260.0</ele><time>2026-04-03T09:18:17Z</time></trkpt><trkpt lat="44.12848908677067" lon="3.912425864258971"><ele>263.0</ele><time>2026-04-03T09:18:18Z</time></trkpt><trkpt lat="44.12844534950754" lon="3.912267134831717"><ele>266.0</ele><time>2026-04-03T09:18:19Z</time></trkpt><trkpt lat="44.12849155981194" lon="3.9120937793117156"><ele>269.0</ele><time>2026-04-03T09:18:20Z</time></trkpt><trkpt lat="44.12854980937908" lon="3.9119025631168394"><ele>272.0</ele><time>2026-04-03T09:18:21Z</time></trkpt><trkpt lat="44.12863905303048" lon="3.911681800793265"><ele>273.0</ele><time>2026-04-03T09:18:22Z</time></trkpt><trkpt lat="44.128724917449595" lon="3.9114287163961268"><ele>274.0</ele><time>2026-04-03T09:18:23Z</time></trkpt><trkpt lat="44.12880661537856" lon="3.911208881844241"><ele>275.0</ele><time>2026-04-03T09:18:24Z</time></trkpt><trkpt lat="44.128912623063094" lon="3.9110206209416982"><ele>273.33333333333337</ele><time>2026-04-03T09:18:25Z</time></trkpt><trkpt lat="44.129048864137886" lon="3.910886778539662"><ele>271.6666666666667</ele><time>2026-04-03T09:18:26Z</time></trkpt><trkpt lat="44.12919275737646" lon="3.910814599529924"><ele>270.0</ele><time>2026-04-03T09:18:27Z</time></trkpt><trkpt lat="44.129352780139364" lon="3.9107962713481723"><ele>274.3333333333333</ele><time>2026-04-03T09:18:28Z</time></trkpt><trkpt lat="44.12953408288262" lon="3.9108042521145467"><ele>278.66666666666663</ele><time>2026-04-03T09:18:29Z</time></trkpt><trkpt lat="44.12971034640329" lon="3.9108170707059235"><ele>283.0</ele><time>2026-04-03T09:18:30Z</time></trkpt><trkpt lat="44.129878411848225" lon="3.9108489175972334"><ele>294.3333333333333</ele><time>2026-04-03T09:18:31Z</time></trkpt><trkpt lat="44.13005387377965" lon="3.91092690392048"><ele>305.6666666666667</ele><time>2026-04-03T09:18:32Z</time></trkpt><trkpt lat="44.13022261754294" lon="3.910964558211929"><ele>317.0</ele><time>2026-04-03T09:18:33Z</time></trkpt><trkpt lat="44.13039393996473" lon="3.9109321506083954"><ele>317.0</ele><time>2026-04-03T09:18:34Z</time></trkpt><trkpt lat="44.13055590458804" lon="3.910888081249799"><ele>317.0</ele><time>2026-04-03T09:18:35Z</time></trkpt><trkpt lat="44.13071715436445" lon="3.910907669618496"><ele>317.0</ele><time>2026-04-03T09:18:36Z</time></trkpt><trkpt lat="44.13088574899828" lon="3.9109915069414387"><ele>317.0</ele><time>2026-04-03T09:18:37Z</time></trkpt><trkpt lat="44.131047698689294" lon="3.911082874392172"><ele>317.0</ele><time>2026-04-03T09:18:38Z</time></trkpt><trkpt lat="44.13119813532834" lon="3.911131014964886"><ele>317.0</ele><time>2026-04-03T09:18:39Z</time></trkpt><trkpt lat="44.13129840336755" lon="3.9111642624331546"><ele>317.0</ele><time>2026-04-03T09:18:40Z</time></trkpt><trkpt lat="44.13136519365212" lon="3.911226021962889"><ele>317.0</ele><time>2026-04-03T09:18:41Z</time></trkpt><trkpt lat="44.13139153780574" lon="3.911340390788924"><ele>317.0</ele><time>2026-04-03T09:18:42Z</time></trkpt><trkpt lat="44.13141281317346" lon="3.911469395164985"><ele>317.0</ele><time>2026-04-03T09:18:43Z</time></trkpt><trkpt lat="44.13141585820493" lon="3.9115928969433393"><ele>317.0</ele><time>2026-04-03T09:18:44Z</time></trkpt><trkpt lat="44.13140107197945" lon="3.9117014381457245"><ele>317.0</ele><time>2026-04-03T09:18:45Z</time></trkpt><trkpt lat="44.131347943267805" lon="3.9117962595487046"><ele>317.0</ele><time>2026-04-03T09:18:46Z</time></trkpt><trkpt lat="44.13127717752977" lon="3.911940029646902"><ele>319.6666666666667</ele><time>2026-04-03T09:18:47Z</time></trkpt><trkpt lat="44.13118437422254" lon="3.9121209822580227"><ele>322.3333333333333</ele><time>2026-04-03T09:18:48Z</time></trkpt><trkpt lat="44.131077646813395" lon="3.9123321262363673"><ele>325.0</ele><time>2026-04-03T09:18:49Z</time></trkpt><trkpt lat="44.130974726581385" lon="3.912549464929841"><ele>324.0</ele><time>2026-04-03T09:18:50Z</time></trkpt><trkpt lat="44.13090973099629" lon="3.91273496798317"><ele>323.0</ele><time>2026-04-03T09:18:51Z</time></trkpt><trkpt lat="44.130844677001576" lon="3.912889126371697"><ele>322.0</ele><time>2026-04-03T09:18:52Z</time></trkpt><trkpt lat="44.13081250149745" lon="3.913036652562975"><ele>321.0</ele><time>2026-04-03T09:18:53Z</time></trkpt><trkpt lat="44.13080854169848" lon="3.913200136223627"><ele>321.0</ele><time>2026-04-03T09:18:54Z</time></trkpt><trkpt lat="44.13083119385876" lon="3.913353402000821"><ele>321.0</ele><time>2026-04-03T09:18:55Z</time></trkpt><trkpt lat="44.13086765640402" lon="3.913476038782826"><ele>321.0</ele><time>2026-04-03T09:18:56Z</time></trkpt><trkpt lat="44.13093225201856" lon="3.913598613604402"><ele>321.0</ele><time>2026-04-03T09:18:57Z</time></trkpt><trkpt lat="44.13103241193821" lon="3.9137514125167563"><ele>317.6666666666667</ele><time>2026-04-03T09:18:58Z</time></trkpt><trkpt lat="44.13115199884064" lon="3.913921838618044"><ele>314.33333333333337</ele><time>2026-04-03T09:18:59Z</time></trkpt><trkpt lat="44.13126843699015" lon="3.9141043313701505"><ele>311.0</ele><time>2026-04-03T09:19:00Z</time></trkpt><trkpt lat="44.13136041994358" lon="3.914286172929573"><ele>308.0</ele><time>2026-04-03T09:19:01Z</time></trkpt><trkpt lat="44.13144307124792" lon="3.914456535799675"><ele>305.0</ele><time>2026-04-03T09:19:02Z</time></trkpt><trkpt lat="44.13151550802579" lon="3.914627330119854"><ele>302.0</ele><time>2026-04-03T09:19:03Z</time></trkpt><trkpt lat="44.131567392713244" lon="3.9147838803555866"><ele>299.0</ele><time>2026-04-03T09:19:04Z</time></trkpt><trkpt lat="44.131583995186375" lon="3.9149238540772378"><ele>298.5</ele><time>2026-04-03T09:19:05Z</time></trkpt><trkpt lat="44.13154027333564" lon="3.9150923786508494"><ele>298.0</ele><time>2026-04-03T09:19:06Z</time></trkpt><trkpt lat="44.13157055587701" lon="3.915294724880478"><ele>297.5</ele><time>2026-04-03T09:19:07Z</time></trkpt><trkpt lat="44.131590013971845" lon="3.915502350054551"><ele>297.0</ele><time>2026-04-03T09:19:08Z</time></trkpt><trkpt lat="44.131580406582785" lon="3.9156775599394824"><ele>297.0</ele><time>2026-04-03T09:19:09Z</time></trkpt><trkpt lat="44.13151242269402" lon="3.9158301602476677"><ele>297.0</ele><time>2026-04-03T09:19:10Z</time></trkpt><trkpt lat="44.13148076456401" lon="3.915984086453777"><ele>297.0</ele><time>2026-04-03T09:19:11Z</time></trkpt><trkpt lat="44.13147201580594" lon="3.9161475600331324"><ele>297.0</ele><time>2026-04-03T09:19:12Z</time></trkpt><trkpt lat="44.13150637144067" lon="3.9162995698667276"><ele>297.0</ele><time>2026-04-03T09:19:13Z</time></trkpt><trkpt lat="44.13156369058742" lon="3.916425148157394"><ele>297.0</ele><time>2026-04-03T09:19:14Z</time></trkpt><trkpt lat="44.13165407502338" lon="3.916529159795147"><ele>297.0</ele><time>2026-04-03T09:19:15Z</time></trkpt><trkpt lat="44.13177285280184" lon="3.9166582229454274"><ele>297.0</ele><time>2026-04-03T09:19:16Z</time></trkpt><trkpt lat="44.1318958536982" lon="3.9167585674652647"><ele>297.0</ele><time>2026-04-03T09:19:17Z</time></trkpt><trkpt lat="44.132014847088584" lon="3.916815778025038"><ele>297.0</ele><time>2026-04-03T09:19:18Z</time></trkpt><trkpt lat="44.13212796896054" lon="3.916851283426202"><ele>297.0</ele><time>2026-04-03T09:19:19Z</time></trkpt><trkpt lat="44.13221054796732" lon="3.916912420727999"><ele>297.0</ele><time>2026-04-03T09:19:20Z</time></trkpt><trkpt lat="44.132251089328804" lon="3.9170713602710254"><ele>297.0</ele><time>2026-04-03T09:19:21Z</time></trkpt><trkpt lat="44.132331879351995" lon="3.917183692658267"><ele>297.0</ele><time>2026-04-03T09:19:22Z</time></trkpt><trkpt lat="44.13244104019216" lon="3.9172637565013098"><ele>297.0</ele><time>2026-04-03T09:19:23Z</time></trkpt><trkpt lat="44.13255120651136" lon="3.9173337169564824"><ele>297.0</ele><time>2026-04-03T09:19:24Z</time></trkpt><trkpt lat="44.132617049894876" lon="3.9174646846355485"><ele>297.75</ele><time>2026-04-03T09:19:25Z</time></trkpt><trkpt lat="44.13267292377158" lon="3.9176011360378267"><ele>298.5</ele><time>2026-04-03T09:19:26Z</time></trkpt><trkpt lat="44.13274747389723" lon="3.9176926922615913"><ele>299.25</ele><time>2026-04-03T09:19:27Z</time></trkpt><trkpt lat="44.13287326787138" lon="3.9177618688580815"><ele>300.0</ele><time>2026-04-03T09:19:28Z</time></trkpt><trkpt lat="44.13304912763994" lon="3.917799894910897"><ele>309.0</ele><time>2026-04-03T09:19:29Z</time></trkpt><trkpt lat="44.13322453422284" lon="3.917841733389127"><ele>318.0</ele><time>2026-04-03T09:19:30Z</time></trkpt><trkpt lat="44.13338988364992" lon="3.91789062817501"><ele>327.0</ele><time>2026-04-03T09:19:31Z</time></trkpt><trkpt lat="44.13355450100319" lon="3.9179378137759238"><ele>327.0</ele><time>2026-04-03T09:19:32Z</time></trkpt><trkpt lat="44.1337001850158" lon="3.9179812853982074"><ele>327.0</ele><time>2026-04-03T09:19:33Z</time></trkpt><trkpt lat="44.133853944253694" lon="3.918026244304159"><ele>327.0</ele><time>2026-04-03T09:19:34Z</time></trkpt><trkpt lat="44.13399627965139" lon="3.9180729536777186"><ele>333.20000000000005</ele><time>2026-04-03T09:19:35Z</time></trkpt><trkpt lat="44.13412386076813" lon="3.918118353741168"><ele>339.4</ele><time>2026-04-03T09:19:36Z</time></trkpt><trkpt lat="44.134236238887304" lon="3.9181452044775162"><ele>345.6</ele><time>2026-04-03T09:19:37Z</time></trkpt><trkpt lat="44.13433081482685" lon="3.918152439681666"><ele>351.79999999999995</ele><time>2026-04-03T09:19:38Z</time></trkpt><trkpt lat="44.13439528580725" lon="3.918215638061083"><ele>358.0</ele><time>2026-04-03T09:19:39Z</time></trkpt><trkpt lat="44.134421684624805" lon="3.9183188909842026"><ele>358.59999999999997</ele><time>2026-04-03T09:19:40Z</time></trkpt><trkpt lat="44.13439391187385" lon="3.918442994976802"><ele>359.2</ele><time>2026-04-03T09:19:41Z</time></trkpt><trkpt lat="44.13434394699763" lon="3.9185533591019275"><ele>359.8</ele><time>2026-04-03T09:19:42Z</time></trkpt><trkpt lat="44.134259198034776" lon="3.9186224338068416"><ele>360.4</ele><time>2026-04-03T09:19:43Z</time></trkpt><trkpt lat="44.13418234670733" lon="3.9187225283875704"><ele>361.0</ele><time>2026-04-03T09:19:44Z</time></trkpt><trkpt lat="44.1341264314452" lon="3.9188627140281964"><ele>361.0</ele><time>2026-04-03T09:19:45Z</time></trkpt><trkpt lat="44.13409924300951" lon="3.9190418760813963"><ele>361.0</ele><time>2026-04-03T09:19:46Z</time></trkpt><trkpt lat="44.13406372414262" lon="3.9192616293056015"><ele>361.0</ele><time>2026-04-03T09:19:47Z</time></trkpt><trkpt lat="44.13399736882887" lon="3.9194256766880096"><ele>361.0</ele><time>2026-04-03T09:19:48Z</time></trkpt><trkpt lat="44.13391149363882" lon="3.9195458394811387"><ele>363.20000000000005</ele><time>2026-04-03T09:19:49Z</time></trkpt><trkpt lat="44.13380190385715" lon="3.9196415192730685"><ele>365.40000000000003</ele><time>2026-04-03T09:19:50Z</time></trkpt><trkpt lat="44.133728504307285" lon="3.919742783208639"><ele>367.6</ele><time>2026-04-03T09:19:51Z</time></trkpt><trkpt lat="44.133689377753655" lon="3.919850797206793"><ele>369.8</ele><time>2026-04-03T09:19:52Z</time></trkpt><trkpt lat="44.13371348825742" lon="3.919980363709427"><ele>372.0</ele><time>2026-04-03T09:19:53Z</time></trkpt><trkpt lat="44.133789304203205" lon="3.920093291755679"><ele>372.0</ele><time>2026-04-03T09:19:54Z</time></trkpt><trkpt lat="44.133897467897505" lon="3.9201503722043927"><ele>372.0</ele><time>2026-04-03T09:19:55Z</time></trkpt><trkpt lat="44.13403196746651" lon="3.920151177197588"><ele>372.0</ele><time>2026-04-03T09:19:56Z</time></trkpt><trkpt lat="44.134149830061325" lon="3.920181170108713"><ele>372.0</ele><time>2026-04-03T09:19:57Z</time></trkpt><trkpt lat="44.13426149168158" lon="3.9202973775992915"><ele>370.5</ele><time>2026-04-03T09:19:58Z</time></trkpt><trkpt lat="44.1343843280253" lon="3.92044418151479"><ele>369.0</ele><time>2026-04-03T09:19:59Z</time></trkpt><trkpt lat="44.13451036489349" lon="3.9205596601130486"><ele>367.5</ele><time>2026-04-03T09:20:00Z</time></trkpt><trkpt lat="44.1346216856911" lon="3.9206644147452585"><ele>366.0</ele><time>2026-04-03T09:20:01Z</time></trkpt><trkpt lat="44.1347031494441" lon="3.9207812737519787"><ele>367.4</ele><time>2026-04-03T09:20:02Z</time></trkpt><trkpt lat="44.134723665996276" lon="3.920941510371766"><ele>368.8</ele><time>2026-04-03T09:20:03Z</time></trkpt><trkpt lat="44.134740119801414" lon="3.9210761189846943"><ele>370.2</ele><time>2026-04-03T09:20:04Z</time></trkpt><trkpt lat="44.13471578109451" lon="3.921175543750134"><ele>371.59999999999997</ele><time>2026-04-03T09:20:05Z</time></trkpt><trkpt lat="44.13469038430442" lon="3.9212925568533383"><ele>373.0</ele><time>2026-04-03T09:20:06Z</time></trkpt><trkpt lat="44.134620369185875" lon="3.921432796505383"><ele>373.0</ele><time>2026-04-03T09:20:07Z</time></trkpt><trkpt lat="44.13453842735684" lon="3.9215702253037974"><ele>373.0</ele><time>2026-04-03T09:20:08Z</time></trkpt><trkpt lat="44.13444668538963" lon="3.921653543718292"><ele>373.0</ele><time>2026-04-03T09:20:09Z</time></trkpt><trkpt lat="44.13433849798008" lon="3.921726620985726"><ele>373.0</ele><time>2026-04-03T09:20:10Z</time></trkpt><trkpt lat="44.13421219647629" lon="3.9218131098981366"><ele>377.0</ele><time>2026-04-03T09:20:11Z</time></trkpt><trkpt lat="44.13405305167452" lon="3.921862887194061"><ele>381.0</ele><time>2026-04-03T09:20:12Z</time></trkpt><trkpt lat="44.133883997158556" lon="3.9219101747804217"><ele>385.0</ele><time>2026-04-03T09:20:13Z</time></trkpt><trkpt lat="44.133744153856824" lon="3.9220093310226676"><ele>385.0</ele><time>2026-04-03T09:20:14Z</time></trkpt><trkpt lat="44.133651988745925" lon="3.922147206134546"><ele>385.0</ele><time>2026-04-03T09:20:15Z</time></trkpt><trkpt lat="44.13355164057451" lon="3.9222948972253833"><ele>385.0</ele><time>2026-04-03T09:20:16Z</time></trkpt><trkpt lat="44.13342743853254" lon="3.922329067703634"><ele>385.0</ele><time>2026-04-03T09:20:17Z</time></trkpt><trkpt lat="44.13328225353445" lon="3.9223452691125504"><ele>385.0</ele><time>2026-04-03T09:20:18Z</time></trkpt><trkpt lat="44.133121306521346" lon="3.922364426565793"><ele>385.0</ele><time>2026-04-03T09:20:19Z</time></trkpt><trkpt lat="44.13298476337231" lon="3.9223952007933964"><ele>385.0</ele><time>2026-04-03T09:20:20Z</time></trkpt><trkpt lat="44.132862853981955" lon="3.9224999635611453"><ele>385.0</ele><time>2026-04-03T09:20:21Z</time></trkpt><trkpt lat="44.13272536551036" lon="3.922574756787741"><ele>385.0</ele><time>2026-04-03T09:20:22Z</time></trkpt><trkpt lat="44.13259356387971" lon="3.922582335701188"><ele>385.0</ele><time>2026-04-03T09:20:23Z</time></trkpt><trkpt lat="44.132462543641736" lon="3.9225640846333274"><ele>385.0</ele><time>2026-04-03T09:20:24Z</time></trkpt><trkpt lat="44.132347403874185" lon="3.9225900437044214"><ele>385.0</ele><time>2026-04-03T09:20:25Z</time></trkpt><trkpt lat="44.13225084326161" lon="3.9226192047682362"><ele>386.25</ele><time>2026-04-03T09:20:26Z</time></trkpt><trkpt lat="44.13218012942854" lon="3.922703729667395"><ele>387.5</ele><time>2026-04-03T09:20:27Z</time></trkpt><trkpt lat="44.132121631771746" lon="3.922849805375104"><ele>388.75</ele><time>2026-04-03T09:20:28Z</time></trkpt><trkpt lat="44.13206554503186" lon="3.9230465545153104"><ele>390.0</ele><time>2026-04-03T09:20:29Z</time></trkpt><trkpt lat="44.13199046491688" lon="3.9232628630320456"><ele>391.25</ele><time>2026-04-03T09:20:30Z</time></trkpt><trkpt lat="44.13193185453158" lon="3.9234672197779217"><ele>392.5</ele><time>2026-04-03T09:20:31Z</time></trkpt><trkpt lat="44.13189204146886" lon="3.9236501355691416"><ele>393.75</ele><time>2026-04-03T09:20:32Z</time></trkpt><trkpt lat="44.131837577929936" lon="3.923829409384458"><ele>395.0</ele><time>2026-04-03T09:20:33Z</time></trkpt><trkpt lat="44.13177552685184" lon="3.9240351391280077"><ele>398.0</ele><time>2026-04-03T09:20:34Z</time></trkpt><trkpt lat="44.13171554088656" lon="3.924240254755493"><ele>401.0</ele><time>2026-04-03T09:20:35Z</time></trkpt><trkpt lat="44.13168541548203" lon="3.924425766409894"><ele>404.0</ele><time>2026-04-03T09:20:36Z</time></trkpt><trkpt lat="44.131691835317746" lon="3.9245953621792222"><ele>407.0</ele><time>2026-04-03T09:20:37Z</time></trkpt><trkpt lat="44.131742665885675" lon="3.9247488468351444"><ele>407.0</ele><time>2026-04-03T09:20:38Z</time></trkpt><trkpt lat="44.13182070175234" lon="3.924863541044657"><ele>407.0</ele><time>2026-04-03T09:20:39Z</time></trkpt><trkpt lat="44.13189263071847" lon="3.9249549740125054"><ele>407.0</ele><time>2026-04-03T09:20:40Z</time></trkpt><trkpt lat="44.1319587426145" lon="3.9250270930977167"><ele>407.0</ele><time>2026-04-03T09:20:41Z</time></trkpt><trkpt lat="44.13204032563908" lon="3.92509532955262"><ele>407.0</ele><time>2026-04-03T09:20:42Z</time></trkpt><trkpt lat="44.13213808284659" lon="3.9251368175683754"><ele>409.0</ele><time>2026-04-03T09:20:43Z</time></trkpt><trkpt lat="44.13224174854521" lon="3.925152406071737"><ele>411.0</ele><time>2026-04-03T09:20:44Z</time></trkpt><trkpt lat="44.13234821148682" lon="3.925161081935127"><ele>413.0</ele><time>2026-04-03T09:20:45Z</time></trkpt><trkpt lat="44.132437891916695" lon="3.925223668238518"><ele>415.0</ele><time>2026-04-03T09:20:46Z</time></trkpt><trkpt lat="44.13253970767737" lon="3.9252968897912823"><ele>417.0</ele><time>2026-04-03T09:20:47Z</time></trkpt><trkpt lat="44.132660064860076" lon="3.925373992425369"><ele>417.0</ele><time>2026-04-03T09:20:48Z</time></trkpt><trkpt lat="44.13279133506129" lon="3.925461019362061"><ele>417.0</ele><time>2026-04-03T09:20:49Z</time></trkpt><trkpt lat="44.13292391736883" lon="3.925561173595619"><ele>417.0</ele><time>2026-04-03T09:20:50Z</time></trkpt><trkpt lat="44.13306142946335" lon="3.925663005926412"><ele>417.0</ele><time>2026-04-03T09:20:51Z</time></trkpt><trkpt lat="44.13319731705628" lon="3.925761191227938"><ele>417.0</ele><time>2026-04-03T09:20:52Z</time></trkpt><trkpt lat="44.1333337292729" lon="3.9258670813696086"><ele>417.0</ele><time>2026-04-03T09:20:53Z</time></trkpt><trkpt lat="44.13346746969507" lon="3.9259653643376735"><ele>420.0</ele><time>2026-04-03T09:20:54Z</time></trkpt><trkpt lat="44.133600780456064" lon="3.9260652312839257"><ele>423.0</ele><time>2026-04-03T09:20:55Z</time></trkpt><trkpt lat="44.1337176695051" lon="3.926190207497977"><ele>426.0</ele><time>2026-04-03T09:20:56Z</time></trkpt><trkpt lat="44.13382444900476" lon="3.926317105071247"><ele>429.0</ele><time>2026-04-03T09:20:57Z</time></trkpt><trkpt lat="44.13391622386417" lon="3.9264426624729483"><ele>429.0</ele><time>2026-04-03T09:20:58Z</time></trkpt><trkpt lat="44.133992550676474" lon="3.9265411633964793"><ele>429.0</ele><time>2026-04-03T09:20:59Z</time></trkpt><trkpt lat="44.13401600897479" lon="3.9266723322370005"><ele>429.0</ele><time>2026-04-03T09:21:00Z</time></trkpt><trkpt lat="44.134020120524404" lon="3.926821079755455"><ele>429.0</ele><time>2026-04-03T09:21:01Z</time></trkpt><trkpt lat="44.13403234007821" lon="3.927003322585797"><ele>429.0</ele><time>2026-04-03T09:21:02Z</time></trkpt><trkpt lat="44.1340593701062" lon="3.927210855517926"><ele>429.5</ele><time>2026-04-03T09:21:03Z</time></trkpt><trkpt lat="44.134077309206646" lon="3.927410216071579"><ele>430.0</ele><time>2026-04-03T09:21:04Z</time></trkpt><trkpt lat="44.13411136989269" lon="3.9275955776655027"><ele>430.5</ele><time>2026-04-03T09:21:05Z</time></trkpt><trkpt lat="44.134168308573614" lon="3.927781819577272"><ele>431.0</ele><time>2026-04-03T09:21:06Z</time></trkpt><trkpt lat="44.134232532453865" lon="3.9279638689860996"><ele>431.0</ele><time>2026-04-03T09:21:07Z</time></trkpt><trkpt lat="44.13429852954717" lon="3.928158354355328"><ele>431.0</ele><time>2026-04-03T09:21:08Z</time></trkpt><trkpt lat="44.134363995117006" lon="3.9283572122541366"><ele>431.0</ele><time>2026-04-03T09:21:09Z</time></trkpt><trkpt lat="44.13442850936886" lon="3.9285616386309745"><ele>437.0</ele><time>2026-04-03T09:21:10Z</time></trkpt><trkpt lat="44.13449664172816" lon="3.9287782212601985"><ele>443.0</ele><time>2026-04-03T09:21:11Z</time></trkpt><trkpt lat="44.13457057183901" lon="3.929004688076991"><ele>449.0</ele><time>2026-04-03T09:21:12Z</time></trkpt><trkpt lat="44.13464495458239" lon="3.9292042599469603"><ele>448.6</ele><time>2026-04-03T09:21:13Z</time></trkpt><trkpt lat="44.13471552932891" lon="3.9293685615760734"><ele>448.2</ele><time>2026-04-03T09:21:14Z</time></trkpt><trkpt lat="44.13477045666585" lon="3.929518714868674"><ele>447.80000000000007</ele><time>2026-04-03T09:21:15Z</time></trkpt><trkpt lat="44.134796181006614" lon="3.929650204151537"><ele>447.40000000000003</ele><time>2026-04-03T09:21:16Z</time></trkpt><trkpt lat="44.134827930153904" lon="3.9297508855390335"><ele>447.0</ele><time>2026-04-03T09:21:17Z</time></trkpt><trkpt lat="44.13489249170027" lon="3.9297983669483565"><ele>447.0</ele><time>2026-04-03T09:21:18Z</time></trkpt><trkpt lat="44.134975248636394" lon="3.9298034592028666"><ele>447.00000000000006</ele><time>2026-04-03T09:21:19Z</time></trkpt><trkpt lat="44.135052446123574" lon="3.9297542554852827"><ele>447.00000000000006</ele><time>2026-04-03T09:21:20Z</time></trkpt><trkpt lat="44.13510815211384" lon="3.9296352766597686"><ele>447.0</ele><time>2026-04-03T09:21:21Z</time></trkpt><trkpt lat="44.13510559203118" lon="3.929501645541833"><ele>447.0</ele><time>2026-04-03T09:21:22Z</time></trkpt><trkpt lat="44.13502695046317" lon="3.9293934472799887"><ele>447.0</ele><time>2026-04-03T09:21:23Z</time></trkpt><trkpt lat="44.13497885210815" lon="3.929239166956788"><ele>447.0</ele><time>2026-04-03T09:21:24Z</time></trkpt><trkpt lat="44.13496693679436" lon="3.9290584555717354"><ele>447.0</ele><time>2026-04-03T09:21:25Z</time></trkpt><trkpt lat="44.13500994158872" lon="3.92887942627142"><ele>447.0</ele><time>2026-04-03T09:21:26Z</time></trkpt><trkpt lat="44.13508792419041" lon="3.9286688735253894"><ele>444.75</ele><time>2026-04-03T09:21:27Z</time></trkpt><trkpt lat="44.135158474898766" lon="3.928463666708762"><ele>442.5</ele><time>2026-04-03T09:21:28Z</time></trkpt><trkpt lat="44.13523388829584" lon="3.928316851455503"><ele>440.25</ele><time>2026-04-03T09:21:29Z</time></trkpt><trkpt lat="44.13534072259502" lon="3.928219561570087"><ele>438.0</ele><time>2026-04-03T09:21:30Z</time></trkpt><trkpt lat="44.1354786530687" lon="3.9281802374312753"><ele>440.33333333333337</ele><time>2026-04-03T09:21:31Z</time></trkpt><trkpt lat="44.13561109004491" lon="3.9281821047265058"><ele>442.6666666666667</ele><time>2026-04-03T09:21:32Z</time></trkpt><trkpt lat="44.13576298711025" lon="3.9282101910228384"><ele>445.0</ele><time>2026-04-03T09:21:33Z</time></trkpt><trkpt lat="44.13592462164535" lon="3.9282506376478543"><ele>445.0</ele><time>2026-04-03T09:21:34Z</time></trkpt><trkpt lat="44.13608238606322" lon="3.9283002870549515"><ele>445.0</ele><time>2026-04-03T09:21:35Z</time></trkpt><trkpt lat="44.13620872069911" lon="3.9283463186141696"><ele>445.0</ele><time>2026-04-03T09:21:36Z</time></trkpt><trkpt lat="44.136311127233526" lon="3.928397650852881"><ele>445.0</ele><time>2026-04-03T09:21:37Z</time></trkpt><trkpt lat="44.1364017545144" lon="3.9284371020128295"><ele>448.6</ele><time>2026-04-03T09:21:38Z</time></trkpt><trkpt lat="44.13647579278878" lon="3.9284738440416636"><ele>452.2</ele><time>2026-04-03T09:21:39Z</time></trkpt><trkpt lat="44.136536560678515" lon="3.928507152518412"><ele>455.79999999999995</ele><time>2026-04-03T09:21:40Z</time></trkpt><trkpt lat="44.13663042750252" lon="3.9285606502095565"><ele>459.4</ele><time>2026-04-03T09:21:42Z</time></trkpt><trkpt lat="44.13675336390209" lon="3.9285767657639115"><ele>463.0</ele><time>2026-04-03T09:22:00Z</time></trkpt><trkpt lat="44.136846083460775" lon="3.9286048190455527"><ele>465.4</ele><time>2026-04-03T09:22:01Z</time></trkpt><trkpt lat="44.13692698185233" lon="3.9286526030396147"><ele>467.79999999999995</ele><time>2026-04-03T09:22:02Z</time></trkpt><trkpt lat="44.13701130264144" lon="3.9286887654218496"><ele>470.2</ele><time>2026-04-03T09:22:03Z</time></trkpt><trkpt lat="44.137096315535835" lon="3.9287210325019064"><ele>472.6</ele><time>2026-04-03T09:22:04Z</time></trkpt><trkpt lat="44.1371934674791" lon="3.9287618732141087"><ele>475.0</ele><time>2026-04-03T09:22:05Z</time></trkpt><trkpt lat="44.13728391830651" lon="3.928781316369522"><ele>475.0</ele><time>2026-04-03T09:22:06Z</time></trkpt><trkpt lat="44.137365703845084" lon="3.928773291563801"><ele>475.0</ele><time>2026-04-03T09:22:07Z</time></trkpt><trkpt lat="44.13743193060919" lon="3.928736183744603"><ele>475.0</ele><time>2026-04-03T09:22:08Z</time></trkpt><trkpt lat="44.13751013194397" lon="3.928698497935601"><ele>475.0</ele><time>2026-04-03T09:22:09Z</time></trkpt><trkpt lat="44.137615722806224" lon="3.928654575899086"><ele>475.0</ele><time>2026-04-03T09:22:10Z</time></trkpt><trkpt lat="44.13775661007093" lon="3.9286036633865287"><ele>475.5</ele><time>2026-04-03T09:22:11Z</time></trkpt><trkpt lat="44.13791399767431" lon="3.928547457484381"><ele>476.0</ele><time>2026-04-03T09:22:12Z</time></trkpt><trkpt lat="44.13805307359818" lon="3.928488437223419"><ele>476.5</ele><time>2026-04-03T09:22:13Z</time></trkpt><trkpt lat="44.13815740554488" lon="3.928438707301734"><ele>477.0</ele><time>2026-04-03T09:22:14Z</time></trkpt><trkpt lat="44.138227498539145" lon="3.928384043243603"><ele>477.0</ele><time>2026-04-03T09:22:15Z</time></trkpt><trkpt lat="44.13826778300296" lon="3.928303542345046"><ele>477.00000000000006</ele><time>2026-04-03T09:22:16Z</time></trkpt><trkpt lat="44.13827141227504" lon="3.9281769443610233"><ele>477.00000000000006</ele><time>2026-04-03T09:22:17Z</time></trkpt><trkpt lat="44.13822965599243" lon="3.9280357648964555"><ele>477.0</ele><time>2026-04-03T09:22:18Z</time></trkpt><trkpt lat="44.13813989117512" lon="3.927909899841599"><ele>477.0</ele><time>2026-04-03T09:22:19Z</time></trkpt><trkpt lat="44.138004071326336" lon="3.9277825163516207"><ele>471.0</ele><time>2026-04-03T09:22:20Z</time></trkpt><trkpt lat="44.13788609968112" lon="3.9276042607169686"><ele>465.0</ele><time>2026-04-03T09:22:21Z</time></trkpt><trkpt lat="44.137773882486584" lon="3.9274716811670145"><ele>459.0</ele><time>2026-04-03T09:22:22Z</time></trkpt><trkpt lat="44.137729956421026" lon="3.9272922264636017"><ele>459.0</ele><time>2026-04-03T09:22:23Z</time></trkpt><trkpt lat="44.13768436780419" lon="3.9270865610008565"><ele>459.0</ele><time>2026-04-03T09:22:24Z</time></trkpt><trkpt lat="44.13765542683026" lon="3.9268286945439863"><ele>459.0</ele><time>2026-04-03T09:22:25Z</time></trkpt><trkpt lat="44.13760141454107" lon="3.9265258977888027"><ele>463.0</ele><time>2026-04-03T09:22:26Z</time></trkpt><trkpt lat="44.13759033635686" lon="3.926238369248447"><ele>467.0</ele><time>2026-04-03T09:22:27Z</time></trkpt><trkpt lat="44.137568026941786" lon="3.9260251785749727"><ele>471.0</ele><time>2026-04-03T09:22:28Z</time></trkpt><trkpt lat="44.137553642334474" lon="3.925847672244897"><ele>471.5</ele><time>2026-04-03T09:22:29Z</time></trkpt><trkpt lat="44.137544859593305" lon="3.9256735826778155"><ele>472.0</ele><time>2026-04-03T09:22:30Z</time></trkpt><trkpt lat="44.13762131891634" lon="3.9255086084116684"><ele>472.5</ele><time>2026-04-03T09:22:31Z</time></trkpt><trkpt lat="44.137709020399946" lon="3.9253784628773922"><ele>473.0</ele><time>2026-04-03T09:22:32Z</time></trkpt><trkpt lat="44.13781124462668" lon="3.925295114461756"><ele>473.0</ele><time>2026-04-03T09:22:33Z</time></trkpt><trkpt lat="44.137924747406814" lon="3.9252124535309645"><ele>473.0</ele><time>2026-04-03T09:22:34Z</time></trkpt><trkpt lat="44.13807082339854" lon="3.9252039348661185"><ele>473.0</ele><time>2026-04-03T09:22:35Z</time></trkpt><trkpt lat="44.138250247545756" lon="3.92517294370061"><ele>480.66666666666663</ele><time>2026-04-03T09:22:36Z</time></trkpt><trkpt lat="44.13844306777026" lon="3.9251517511418865"><ele>488.33333333333337</ele><time>2026-04-03T09:22:37Z</time></trkpt><trkpt lat="44.13861751823191" lon="3.9251030341734054"><ele>496.0</ele><time>2026-04-03T09:22:38Z</time></trkpt><trkpt lat="44.13876324318575" lon="3.9250710696645177"><ele>496.0</ele><time>2026-04-03T09:22:39Z</time></trkpt><trkpt lat="44.13889717077819" lon="3.9250861514640514"><ele>496.0</ele><time>2026-04-03T09:22:40Z</time></trkpt><trkpt lat="44.13904300995627" lon="3.925113195216978"><ele>496.0</ele><time>2026-04-03T09:22:41Z</time></trkpt><trkpt lat="44.139227749379" lon="3.9252089284128453"><ele>501.0</ele><time>2026-04-03T09:22:42Z</time></trkpt><trkpt lat="44.139391747064145" lon="3.9252770297602515"><ele>506.0</ele><time>2026-04-03T09:22:43Z</time></trkpt><trkpt lat="44.13952754120711" lon="3.9253294035979693"><ele>511.0</ele><time>2026-04-03T09:22:44Z</time></trkpt><trkpt lat="44.13963655739838" lon="3.9254514494255606"><ele>511.0</ele><time>2026-04-03T09:22:45Z</time></trkpt><trkpt lat="44.13976072651786" lon="3.9255457142435777"><ele>511.0</ele><time>2026-04-03T09:22:46Z</time></trkpt><trkpt lat="44.139862882921406" lon="3.9256342223179144"><ele>511.0</ele><time>2026-04-03T09:22:47Z</time></trkpt><trkpt lat="44.13997215248702" lon="3.925671909545916"><ele>511.0</ele><time>2026-04-03T09:22:48Z</time></trkpt><trkpt lat="44.14007684107665" lon="3.925641569616192"><ele>509.50000000000006</ele><time>2026-04-03T09:22:49Z</time></trkpt><trkpt lat="44.14016598518356" lon="3.9255787667190356"><ele>508.0</ele><time>2026-04-03T09:22:50Z</time></trkpt><trkpt lat="44.14024060546775" lon="3.9255527893643993"><ele>506.5</ele><time>2026-04-03T09:22:51Z</time></trkpt><trkpt lat="44.140306727021816" lon="3.9255330148473746"><ele>505.0</ele><time>2026-04-03T09:22:52Z</time></trkpt><trkpt lat="44.14041704753495" lon="3.9255588088033955"><ele>503.50000000000006</ele><time>2026-04-03T09:22:54Z</time></trkpt><trkpt lat="44.140464871004596" lon="3.9256258313680266"><ele>502.0</ele><time>2026-04-03T09:22:55Z</time></trkpt><trkpt lat="44.140487879471685" lon="3.9257168941649225"><ele>502.0</ele><time>2026-04-03T09:22:56Z</time></trkpt><trkpt lat="44.140494243190076" lon="3.9258293203243726"><ele>502.00000000000006</ele><time>2026-04-03T09:22:57Z</time></trkpt><trkpt lat="44.140507884347606" lon="3.9259501630264477"><ele>502.00000000000006</ele><time>2026-04-03T09:22:58Z</time></trkpt><trkpt lat="44.14053896144651" lon="3.9260827959897004"><ele>502.0</ele><time>2026-04-03T09:22:59Z</time></trkpt><trkpt lat="44.14058965719472" lon="3.9262278150622105"><ele>502.0</ele><time>2026-04-03T09:23:00Z</time></trkpt><trkpt lat="44.14064942791937" lon="3.926389252403749"><ele>505.5</ele><time>2026-04-03T09:23:01Z</time></trkpt><trkpt lat="44.14071175321296" lon="3.9265564922080456"><ele>509.0</ele><time>2026-04-03T09:23:02Z</time></trkpt><trkpt lat="44.140780794513105" lon="3.9267413825256243"><ele>512.5</ele><time>2026-04-03T09:23:03Z</time></trkpt><trkpt lat="44.1408509766301" lon="3.9269329632410535"><ele>516.0</ele><time>2026-04-03T09:23:04Z</time></trkpt><trkpt lat="44.140916562675365" lon="3.9271264430487505"><ele>516.0</ele><time>2026-04-03T09:23:05Z</time></trkpt><trkpt lat="44.14098965124238" lon="3.9273223570782236"><ele>516.0</ele><time>2026-04-03T09:23:06Z</time></trkpt><trkpt lat="44.141081648499714" lon="3.9275188627390065"><ele>516.0</ele><time>2026-04-03T09:23:07Z</time></trkpt><trkpt lat="44.141193962747195" lon="3.9277085607489552"><ele>519.6666666666666</ele><time>2026-04-03T09:23:08Z</time></trkpt><trkpt lat="44.1413005540366" lon="3.927892114403832"><ele>523.3333333333333</ele><time>2026-04-03T09:23:09Z</time></trkpt><trkpt lat="44.141395664632995" lon="3.928052464731383"><ele>527.0</ele><time>2026-04-03T09:23:10Z</time></trkpt><trkpt lat="44.14148083568249" lon="3.9281960116345975"><ele>525.8000000000001</ele><time>2026-04-03T09:23:11Z</time></trkpt><trkpt lat="44.141568569541995" lon="3.9283176957903407"><ele>524.6</ele><time>2026-04-03T09:23:12Z</time></trkpt><trkpt lat="44.14166428345207" lon="3.9283873863557925"><ele>523.4000000000001</ele><time>2026-04-03T09:23:13Z</time></trkpt><trkpt lat="44.14176489011851" lon="3.9284063473900055"><ele>522.2</ele><time>2026-04-03T09:23:14Z</time></trkpt><trkpt lat="44.14187780959471" lon="3.928387296132611"><ele>521.0</ele><time>2026-04-03T09:23:15Z</time></trkpt><trkpt lat="44.1419905184362" lon="3.928339422985058"><ele>521.0</ele><time>2026-04-03T09:23:16Z</time></trkpt><trkpt lat="44.14209807797734" lon="3.9282190194402355"><ele>521.0</ele><time>2026-04-03T09:23:17Z</time></trkpt><trkpt lat="44.14220882410127" lon="3.928050094951919"><ele>521.0</ele><time>2026-04-03T09:23:18Z</time></trkpt><trkpt lat="44.14233382383671" lon="3.9278753981590224"><ele>522.0</ele><time>2026-04-03T09:23:19Z</time></trkpt><trkpt lat="44.142453173244355" lon="3.927718782543336"><ele>523.0</ele><time>2026-04-03T09:23:20Z</time></trkpt><trkpt lat="44.14256934588704" lon="3.9275807755068186"><ele>524.0</ele><time>2026-04-03T09:23:21Z</time></trkpt><trkpt lat="44.14268086118796" lon="3.927463387137926"><ele>524.0</ele><time>2026-04-03T09:23:22Z</time></trkpt><trkpt lat="44.14275625937514" lon="3.9273612659673884"><ele>524.0</ele><time>2026-04-03T09:23:23Z</time></trkpt><trkpt lat="44.142794388098665" lon="3.9272486219655947"><ele>524.0</ele><time>2026-04-03T09:23:24Z</time></trkpt><trkpt lat="44.14278392845522" lon="3.9271230267296406"><ele>524.0</ele><time>2026-04-03T09:23:25Z</time></trkpt><trkpt lat="44.142732156985" lon="3.9270242594462594"><ele>524.0</ele><time>2026-04-03T09:23:26Z</time></trkpt><trkpt lat="44.14264293134135" lon="3.9269265271669305"><ele>524.0</ele><time>2026-04-03T09:23:27Z</time></trkpt><trkpt lat="44.14251520921524" lon="3.9268386292405677"><ele>524.0</ele><time>2026-04-03T09:23:28Z</time></trkpt><trkpt lat="44.142387685250306" lon="3.9267598843209734"><ele>524.0</ele><time>2026-04-03T09:23:29Z</time></trkpt><trkpt lat="44.1422916360389" lon="3.926672877411509"><ele>524.0</ele><time>2026-04-03T09:23:30Z</time></trkpt><trkpt lat="44.14224103559471" lon="3.92653898044701"><ele>524.0</ele><time>2026-04-03T09:23:31Z</time></trkpt><trkpt lat="44.14221952867491" lon="3.926425315059952"><ele>524.0</ele><time>2026-04-03T09:23:32Z</time></trkpt><trkpt lat="44.142296832359335" lon="3.926331653292381"><ele>524.0</ele><time>2026-04-03T09:23:33Z</time></trkpt><trkpt lat="44.142386145094164" lon="3.9262653294843077"><ele>524.0</ele><time>2026-04-03T09:23:34Z</time></trkpt><trkpt lat="44.14250192178295" lon="3.926165877076875"><ele>524.0</ele><time>2026-04-03T09:23:35Z</time></trkpt><trkpt lat="44.142631821384896" lon="3.9260346424826773"><ele>524.0</ele><time>2026-04-03T09:23:36Z</time></trkpt><trkpt lat="44.142757317481525" lon="3.9259529140678984"><ele>524.0</ele><time>2026-04-03T09:23:37Z</time></trkpt><trkpt lat="44.1428700950121" lon="3.9259326179906577"><ele>524.0</ele><time>2026-04-03T09:23:38Z</time></trkpt><trkpt lat="44.14296414149922" lon="3.925995464385922"><ele>524.0</ele><time>2026-04-03T09:23:39Z</time></trkpt><trkpt lat="44.14299047334919" lon="3.9261299130792597"><ele>524.0</ele><time>2026-04-03T09:23:40Z</time></trkpt><trkpt lat="44.14305976251532" lon="3.926252830360424"><ele>524.0</ele><time>2026-04-03T09:23:41Z</time></trkpt><trkpt lat="44.14314159569868" lon="3.9263690122801713"><ele>524.0</ele><time>2026-04-03T09:23:42Z</time></trkpt><trkpt lat="44.14325757138704" lon="3.9264114753287767"><ele>524.0</ele><time>2026-04-03T09:23:43Z</time></trkpt><trkpt lat="44.14339056610857" lon="3.9263998005687952"><ele>526.5</ele><time>2026-04-03T09:23:44Z</time></trkpt><trkpt lat="44.143541642191494" lon="3.9263587039319567"><ele>529.0</ele><time>2026-04-03T09:23:45Z</time></trkpt><trkpt lat="44.143680880951" lon="3.9263287209907247"><ele>531.5</ele><time>2026-04-03T09:23:46Z</time></trkpt><trkpt lat="44.14379844482751" lon="3.9263541862073508"><ele>534.0</ele><time>2026-04-03T09:23:47Z</time></trkpt><trkpt lat="44.14388199362751" lon="3.9264415391636116"><ele>534.0</ele><time>2026-04-03T09:23:48Z</time></trkpt><trkpt lat="44.14392726404258" lon="3.926590998233129"><ele>534.0</ele><time>2026-04-03T09:23:49Z</time></trkpt><trkpt lat="44.143942168008486" lon="3.9267475426118175"><ele>534.0</ele><time>2026-04-03T09:23:50Z</time></trkpt><trkpt lat="44.1439413306325" lon="3.926868225643628"><ele>534.0</ele><time>2026-04-03T09:23:51Z</time></trkpt><trkpt lat="44.14398925512075" lon="3.926948767952403"><ele>534.0</ele><time>2026-04-03T09:23:53Z</time></trkpt><trkpt lat="44.14395641779021" lon="3.926851873438457"><ele>535.2</ele><time>2026-04-03T09:24:15Z</time></trkpt><trkpt lat="44.143954921384605" lon="3.9269484319869417"><ele>536.4</ele><time>2026-04-03T09:24:21Z</time></trkpt><trkpt lat="44.143860416348936" lon="3.9271197534746287"><ele>537.6</ele><time>2026-04-03T09:24:22Z</time></trkpt><trkpt lat="44.143858914786115" lon="3.9272700808787944"><ele>538.8</ele><time>2026-04-03T09:24:24Z</time></trkpt><trkpt lat="44.143869270616" lon="3.9274165721646344"><ele>540.0</ele><time>2026-04-03T09:24:26Z</time></trkpt><trkpt lat="44.14383803183278" lon="3.9275341142051237"><ele>540.0</ele><time>2026-04-03T09:24:28Z</time></trkpt><trkpt lat="44.143748681396815" lon="3.927576970544384"><ele>540.0</ele><time>2026-04-03T09:24:30Z</time></trkpt><trkpt lat="44.14381284060026" lon="3.927523098543502"><ele>540.0</ele><time>2026-04-03T09:24:52Z</time></trkpt><trkpt lat="44.14384901406891" lon="3.927423558965646"><ele>540.0</ele><time>2026-04-03T09:24:54Z</time></trkpt><trkpt lat="44.14389999713953" lon="3.9273428239882935"><ele>540.0</ele><time>2026-04-03T09:24:56Z</time></trkpt><trkpt lat="44.143845926902635" lon="3.9270761063424295"><ele>540.0</ele><time>2026-04-03T09:24:58Z</time></trkpt><trkpt lat="44.14385278078443" lon="3.9269843125961303"><ele>540.0</ele><time>2026-04-03T09:24:59Z</time></trkpt><trkpt lat="44.143885621946175" lon="3.9268954262746414"><ele>540.0</ele><time>2026-04-03T09:25:01Z</time></trkpt><trkpt lat="44.143964989912654" lon="3.926871887902236"><ele>540.0</ele><time>2026-04-03T09:25:04Z</time></trkpt><trkpt lat="44.14410938918155" lon="3.926978473629577"><ele>540.0</ele><time>2026-04-03T09:25:06Z</time></trkpt><trkpt lat="44.14421650530367" lon="3.927059576720697"><ele>542.5</ele><time>2026-04-03T09:25:07Z</time></trkpt><trkpt lat="44.14434621297525" lon="3.927140918427269"><ele>545.0</ele><time>2026-04-03T09:25:08Z</time></trkpt><trkpt lat="44.14448548397631" lon="3.9271848298791823"><ele>547.5</ele><time>2026-04-03T09:25:09Z</time></trkpt><trkpt lat="44.144644721890174" lon="3.9272188820425558"><ele>550.0</ele><time>2026-04-03T09:25:10Z</time></trkpt><trkpt lat="44.14480936178796" lon="3.9272446981648477"><ele>548.25</ele><time>2026-04-03T09:25:11Z</time></trkpt><trkpt lat="44.14496347642403" lon="3.927260749058826"><ele>546.5</ele><time>2026-04-03T09:25:12Z</time></trkpt><trkpt lat="44.145108053723746" lon="3.9272824646518285"><ele>544.75</ele><time>2026-04-03T09:25:13Z</time></trkpt><trkpt lat="44.14522312003986" lon="3.9272998204330287"><ele>543.0</ele><time>2026-04-03T09:25:14Z</time></trkpt><trkpt lat="44.14532921529127" lon="3.9273340308582125"><ele>543.0</ele><time>2026-04-03T09:25:15Z</time></trkpt><trkpt lat="44.14543700325721" lon="3.9273939620791887"><ele>543.0</ele><time>2026-04-03T09:25:16Z</time></trkpt><trkpt lat="44.145545289684584" lon="3.9274971751067005"><ele>543.0</ele><time>2026-04-03T09:25:17Z</time></trkpt><trkpt lat="44.145656073137246" lon="3.9276273401275574"><ele>543.0</ele><time>2026-04-03T09:25:18Z</time></trkpt><trkpt lat="44.145774353297625" lon="3.9277472209943776"><ele>542.75</ele><time>2026-04-03T09:25:19Z</time></trkpt><trkpt lat="44.14588583474314" lon="3.927869780886514"><ele>542.5</ele><time>2026-04-03T09:25:20Z</time></trkpt><trkpt lat="44.14600311992489" lon="3.9279754153844326"><ele>542.25</ele><time>2026-04-03T09:25:21Z</time></trkpt><trkpt lat="44.1461190595328" lon="3.9280626838573847"><ele>542.0</ele><time>2026-04-03T09:25:22Z</time></trkpt><trkpt lat="44.14623031962394" lon="3.9281584470295257"><ele>542.0</ele><time>2026-04-03T09:25:23Z</time></trkpt><trkpt lat="44.146346015366724" lon="3.928229065439957"><ele>542.0</ele><time>2026-04-03T09:25:24Z</time></trkpt><trkpt lat="44.14646816407731" lon="3.9282606522922237"><ele>542.0</ele><time>2026-04-03T09:25:25Z</time></trkpt><trkpt lat="44.14659156148059" lon="3.9282585610152183"><ele>542.0</ele><time>2026-04-03T09:25:26Z</time></trkpt><trkpt lat="44.146708401840094" lon="3.92825088011087"><ele>539.4</ele><time>2026-04-03T09:25:27Z</time></trkpt><trkpt lat="44.14682098361934" lon="3.928274707064852"><ele>536.8000000000001</ele><time>2026-04-03T09:25:28Z</time></trkpt><trkpt lat="44.14690332065212" lon="3.9283428419502497"><ele>534.2</ele><time>2026-04-03T09:25:29Z</time></trkpt><trkpt lat="44.14694974849648" lon="3.9284557950781758"><ele>531.6</ele><time>2026-04-03T09:25:30Z</time></trkpt><trkpt lat="44.14692490116944" lon="3.928590806786084"><ele>529.0</ele><time>2026-04-03T09:25:31Z</time></trkpt><trkpt lat="44.1469240802853" lon="3.9287107346902745"><ele>529.0</ele><time>2026-04-03T09:25:32Z</time></trkpt><trkpt lat="44.14692199463578" lon="3.9288319322801795"><ele>529.0</ele><time>2026-04-03T09:25:33Z</time></trkpt><trkpt lat="44.14693420372135" lon="3.928955914454762"><ele>529.0</ele><time>2026-04-03T09:25:34Z</time></trkpt><trkpt lat="44.146922404959135" lon="3.9290676092628534"><ele>529.0</ele><time>2026-04-03T09:25:35Z</time></trkpt><trkpt lat="44.14690277084967" lon="3.9291658771885354"><ele>529.0</ele><time>2026-04-03T09:25:36Z</time></trkpt><trkpt lat="44.146892689024504" lon="3.9292598706338366"><ele>529.0</ele><time>2026-04-03T09:25:37Z</time></trkpt><trkpt lat="44.1468759963772" lon="3.9293552169112442"><ele>529.0</ele><time>2026-04-03T09:25:39Z</time></trkpt><trkpt lat="44.14689890692788" lon="3.9292022285353343"><ele>529.0</ele><time>2026-04-03T09:25:49Z</time></trkpt><trkpt lat="44.146912687039794" lon="3.9290913903369815"><ele>529.0</ele><time>2026-04-03T09:25:50Z</time></trkpt><trkpt lat="44.146937638269925" lon="3.9289660367027524"><ele>529.0</ele><time>2026-04-03T09:25:51Z</time></trkpt><trkpt lat="44.14695625149623" lon="3.928767885272983"><ele>529.0</ele><time>2026-04-03T09:25:52Z</time></trkpt><trkpt lat="44.14695466089542" lon="3.9285574044209075"><ele>527.75</ele><time>2026-04-03T09:25:53Z</time></trkpt><trkpt lat="44.14693783219336" lon="3.9283715862786703"><ele>526.5</ele><time>2026-04-03T09:25:54Z</time></trkpt><trkpt lat="44.146884956869556" lon="3.928241879169242"><ele>525.25</ele><time>2026-04-03T09:25:55Z</time></trkpt><trkpt lat="44.14678982884936" lon="3.9281862878484253"><ele>524.0</ele><time>2026-04-03T09:25:56Z</time></trkpt><trkpt lat="44.14665201522784" lon="3.928188212408755"><ele>530.0</ele><time>2026-04-03T09:25:57Z</time></trkpt><trkpt lat="44.14648992811156" lon="3.928226692202324"><ele>536.0</ele><time>2026-04-03T09:25:58Z</time></trkpt><trkpt lat="44.14632668599928" lon="3.9281863932276218"><ele>542.0</ele><time>2026-04-03T09:25:59Z</time></trkpt><trkpt lat="44.14619451432447" lon="3.928091994663029"><ele>542.0</ele><time>2026-04-03T09:26:00Z</time></trkpt><trkpt lat="44.14606076516266" lon="3.927966234740747"><ele>542.0</ele><time>2026-04-03T09:26:01Z</time></trkpt><trkpt lat="44.145901180414015" lon="3.927808149623539"><ele>542.0</ele><time>2026-04-03T09:26:02Z</time></trkpt><trkpt lat="44.14574206146065" lon="3.927648227016872"><ele>542.3333333333333</ele><time>2026-04-03T09:26:03Z</time></trkpt><trkpt lat="44.145591799912616" lon="3.927496895511191"><ele>542.6666666666666</ele><time>2026-04-03T09:26:04Z</time></trkpt><trkpt lat="44.14546469552433" lon="3.927379730009923"><ele>543.0</ele><time>2026-04-03T09:26:05Z</time></trkpt><trkpt lat="44.14535553798802" lon="3.92730866323796"><ele>543.0</ele><time>2026-04-03T09:26:06Z</time></trkpt><trkpt lat="44.14524185210464" lon="3.927243052798855"><ele>543.0</ele><time>2026-04-03T09:26:07Z</time></trkpt><trkpt lat="44.14510303766484" lon="3.927221816618848"><ele>543.0</ele><time>2026-04-03T09:26:08Z</time></trkpt><trkpt lat="44.14493586367099" lon="3.9272276408857736"><ele>543.0</ele><time>2026-04-03T09:26:09Z</time></trkpt><trkpt lat="44.144768012938904" lon="3.927190471840517"><ele>545.3333333333334</ele><time>2026-04-03T09:26:10Z</time></trkpt><trkpt lat="44.144600544493066" lon="3.927157195700528"><ele>547.6666666666667</ele><time>2026-04-03T09:26:11Z</time></trkpt><trkpt lat="44.14444465237948" lon="3.927118412782401"><ele>550.0</ele><time>2026-04-03T09:26:12Z</time></trkpt><trkpt lat="44.14430968760238" lon="3.92706525403119"><ele>550.0</ele><time>2026-04-03T09:26:13Z</time></trkpt><trkpt lat="44.14419219798517" lon="3.9269904229699177"><ele>550.0</ele><time>2026-04-03T09:26:14Z</time></trkpt><trkpt lat="44.14408761034166" lon="3.9269201849102884"><ele>550.0</ele><time>2026-04-03T09:26:15Z</time></trkpt><trkpt lat="44.14401234823878" lon="3.926865320558588"><ele>550.0</ele><time>2026-04-03T09:26:16Z</time></trkpt><trkpt lat="44.14392877936315" lon="3.9267785964196746"><ele>550.0</ele><time>2026-04-03T09:26:18Z</time></trkpt><trkpt lat="44.14385624243149" lon="3.926966574517346"><ele>551.0</ele><time>2026-04-03T09:26:21Z</time></trkpt><trkpt lat="44.14385628729772" lon="3.927139178713251"><ele>552.0</ele><time>2026-04-03T09:26:23Z</time></trkpt><trkpt lat="44.14386218232835" lon="3.9272727738259383"><ele>553.0</ele><time>2026-04-03T09:26:24Z</time></trkpt><trkpt lat="44.14388082258882" lon="3.927399591817978"><ele>554.0</ele><time>2026-04-03T09:26:25Z</time></trkpt><trkpt lat="44.14387557403793" lon="3.927489593614322"><ele>555.0</ele><time>2026-04-03T09:26:26Z</time></trkpt><trkpt lat="44.14382579902438" lon="3.9275495443234854"><ele>556.0</ele><time>2026-04-03T09:26:27Z</time></trkpt><trkpt lat="44.143705266448116" lon="3.9276203295201677"><ele>556.0</ele><time>2026-04-03T09:26:29Z</time></trkpt><trkpt lat="44.14362854714423" lon="3.9276969530635326"><ele>556.0</ele><time>2026-04-03T09:26:30Z</time></trkpt><trkpt lat="44.143553446192385" lon="3.927764429272833"><ele>556.0</ele><time>2026-04-03T09:26:31Z</time></trkpt><trkpt lat="44.1434822107529" lon="3.927855285672252"><ele>556.0</ele><time>2026-04-03T09:26:32Z</time></trkpt><trkpt lat="44.14340283721636" lon="3.9279425012896563"><ele>556.0</ele><time>2026-04-03T09:26:33Z</time></trkpt><trkpt lat="44.14333021257456" lon="3.9280298141644443"><ele>556.0</ele><time>2026-04-03T09:26:34Z</time></trkpt><trkpt lat="44.143268439514905" lon="3.9281149509944955"><ele>556.0</ele><time>2026-04-03T09:26:35Z</time></trkpt><trkpt lat="44.1431937899746" lon="3.9282369618596196"><ele>556.0</ele><time>2026-04-03T09:26:36Z</time></trkpt><trkpt lat="44.14310780635014" lon="3.9283336566853233"><ele>556.0</ele><time>2026-04-03T09:26:37Z</time></trkpt><trkpt lat="44.143019905234276" lon="3.928443867774299"><ele>556.0</ele><time>2026-04-03T09:26:38Z</time></trkpt><trkpt lat="44.14293206598569" lon="3.9285670054713115"><ele>555.4</ele><time>2026-04-03T09:26:39Z</time></trkpt><trkpt lat="44.14285519113203" lon="3.9286859338958813"><ele>554.8</ele><time>2026-04-03T09:26:40Z</time></trkpt><trkpt lat="44.142784966401614" lon="3.928789062121132"><ele>554.1999999999999</ele><time>2026-04-03T09:26:41Z</time></trkpt><trkpt lat="44.14270207232904" lon="3.9288756242421257"><ele>553.6</ele><time>2026-04-03T09:26:42Z</time></trkpt><trkpt lat="44.142599139510686" lon="3.9289305418470226"><ele>553.0</ele><time>2026-04-03T09:26:43Z</time></trkpt><trkpt lat="44.14248973726901" lon="3.92901926659667"><ele>553.0</ele><time>2026-04-03T09:26:44Z</time></trkpt><trkpt lat="44.142385881038244" lon="3.9291258684865475"><ele>553.0</ele><time>2026-04-03T09:26:45Z</time></trkpt><trkpt lat="44.1422897797182" lon="3.9292372930093755"><ele>553.0</ele><time>2026-04-03T09:26:46Z</time></trkpt><trkpt lat="44.14220006732116" lon="3.929325125007714"><ele>553.0</ele><time>2026-04-03T09:26:47Z</time></trkpt><trkpt lat="44.142121520625565" lon="3.929395448232372"><ele>556.4</ele><time>2026-04-03T09:26:48Z</time></trkpt><trkpt lat="44.142030798476405" lon="3.929441062720925"><ele>559.8</ele><time>2026-04-03T09:26:49Z</time></trkpt><trkpt lat="44.141924686032404" lon="3.929478796512445"><ele>563.2</ele><time>2026-04-03T09:26:50Z</time></trkpt><trkpt lat="44.14183046138008" lon="3.9294926627089724"><ele>566.6</ele><time>2026-04-03T09:26:51Z</time></trkpt><trkpt lat="44.14172520090061" lon="3.929482044249115"><ele>570.0</ele><time>2026-04-03T09:26:52Z</time></trkpt><trkpt lat="44.14163864786503" lon="3.9294568017569556"><ele>570.0</ele><time>2026-04-03T09:26:53Z</time></trkpt><trkpt lat="44.14157694172399" lon="3.9293897758418046"><ele>570.0</ele><time>2026-04-03T09:26:54Z</time></trkpt><trkpt lat="44.14150988262616" lon="3.9292939338368393"><ele>570.0</ele><time>2026-04-03T09:26:55Z</time></trkpt><trkpt lat="44.14144599037584" lon="3.9292090907517636"><ele>570.0</ele><time>2026-04-03T09:26:56Z</time></trkpt><trkpt lat="44.14136313428641" lon="3.9291285432421623"><ele>570.0</ele><time>2026-04-03T09:26:57Z</time></trkpt><trkpt lat="44.14125749693628" lon="3.9290775522730943"><ele>565.25</ele><time>2026-04-03T09:26:58Z</time></trkpt><trkpt lat="44.14115223844786" lon="3.929026398410777"><ele>560.5</ele><time>2026-04-03T09:26:59Z</time></trkpt><trkpt lat="44.14104631626987" lon="3.928969410834849"><ele>555.75</ele><time>2026-04-03T09:27:00Z</time></trkpt><trkpt lat="44.1409287584864" lon="3.9289045806869503"><ele>551.0</ele><time>2026-04-03T09:27:01Z</time></trkpt><trkpt lat="44.1408262660734" lon="3.928857191324702"><ele>551.0</ele><time>2026-04-03T09:27:02Z</time></trkpt><trkpt lat="44.14073435406131" lon="3.9288405694043678"><ele>551.0</ele><time>2026-04-03T09:27:03Z</time></trkpt><trkpt lat="44.140644358733724" lon="3.9288095492770707"><ele>551.0</ele><time>2026-04-03T09:27:04Z</time></trkpt><trkpt lat="44.140555380172046" lon="3.9288556962167904"><ele>551.0</ele><time>2026-04-03T09:27:05Z</time></trkpt><trkpt lat="44.14045859960675" lon="3.9288905612148546"><ele>551.0</ele><time>2026-04-03T09:27:06Z</time></trkpt><trkpt lat="44.14035269969957" lon="3.928957551636906"><ele>552.5</ele><time>2026-04-03T09:27:07Z</time></trkpt><trkpt lat="44.14026989272678" lon="3.9290311894086476"><ele>554.0</ele><time>2026-04-03T09:27:08Z</time></trkpt><trkpt lat="44.140160987612795" lon="3.929128915835522"><ele>555.5</ele><time>2026-04-03T09:27:09Z</time></trkpt><trkpt lat="44.14006245265205" lon="3.9292389902465312"><ele>557.0</ele><time>2026-04-03T09:27:10Z</time></trkpt><trkpt lat="44.13997342110753" lon="3.9293803392611615"><ele>557.0</ele><time>2026-04-03T09:27:11Z</time></trkpt><trkpt lat="44.139883646917966" lon="3.929526090221119"><ele>557.0</ele><time>2026-04-03T09:27:12Z</time></trkpt><trkpt lat="44.139762687348295" lon="3.92961731812144"><ele>557.0</ele><time>2026-04-03T09:27:13Z</time></trkpt><trkpt lat="44.139674794006986" lon="3.9297471113635503"><ele>557.0</ele><time>2026-04-03T09:27:14Z</time></trkpt><trkpt lat="44.139585831871926" lon="3.9298857209026403"><ele>555.25</ele><time>2026-04-03T09:27:15Z</time></trkpt><trkpt lat="44.13947940093235" lon="3.9300231233412735"><ele>553.5</ele><time>2026-04-03T09:27:16Z</time></trkpt><trkpt lat="44.139366675473894" lon="3.930152925291777"><ele>551.75</ele><time>2026-04-03T09:27:17Z</time></trkpt><trkpt lat="44.13926560139127" lon="3.9302710625972894"><ele>550.0</ele><time>2026-04-03T09:27:18Z</time></trkpt><trkpt lat="44.139173542903706" lon="3.9303849338422863"><ele>550.0</ele><time>2026-04-03T09:27:19Z</time></trkpt><trkpt lat="44.13909382928615" lon="3.9304847137459427"><ele>550.0</ele><time>2026-04-03T09:27:20Z</time></trkpt><trkpt lat="44.13902737575809" lon="3.9305703649527954"><ele>550.0</ele><time>2026-04-03T09:27:21Z</time></trkpt><trkpt lat="44.13896469796986" lon="3.9306511496313723"><ele>550.0</ele><time>2026-04-03T09:27:22Z</time></trkpt><trkpt lat="44.13891327360093" lon="3.930724145462672"><ele>550.0</ele><time>2026-04-03T09:27:23Z</time></trkpt><trkpt lat="44.1388787481966" lon="3.930801860407358"><ele>550.0</ele><time>2026-04-03T09:27:24Z</time></trkpt><trkpt lat="44.13886577746345" lon="3.930892699454466"><ele>550.8</ele><time>2026-04-03T09:27:25Z</time></trkpt><trkpt lat="44.13892398216704" lon="3.930958456641163"><ele>551.6</ele><time>2026-04-03T09:27:26Z</time></trkpt><trkpt lat="44.13896248457438" lon="3.9310550461420855"><ele>552.4</ele><time>2026-04-03T09:27:27Z</time></trkpt><trkpt lat="44.1390252706733" lon="3.9311875575386224"><ele>553.2</ele><time>2026-04-03T09:27:28Z</time></trkpt><trkpt lat="44.13909846773566" lon="3.9313165119709694"><ele>554.0</ele><time>2026-04-03T09:27:29Z</time></trkpt><trkpt lat="44.139158031695075" lon="3.9314581677724574"><ele>554.0</ele><time>2026-04-03T09:27:30Z</time></trkpt><trkpt lat="44.13918664697795" lon="3.9315818160840075"><ele>554.0</ele><time>2026-04-03T09:27:31Z</time></trkpt><trkpt lat="44.139156380386346" lon="3.931693165977204"><ele>554.0</ele><time>2026-04-03T09:27:32Z</time></trkpt><trkpt lat="44.13911290112923" lon="3.931832686645172"><ele>554.0</ele><time>2026-04-03T09:27:33Z</time></trkpt><trkpt lat="44.1390600003992" lon="3.931996072331085"><ele>554.0</ele><time>2026-04-03T09:27:34Z</time></trkpt><trkpt lat="44.13900803095011" lon="3.932190727983802"><ele>554.5</ele><time>2026-04-03T09:27:35Z</time></trkpt><trkpt lat="44.138936477245004" lon="3.9323627005936643"><ele>555.0</ele><time>2026-04-03T09:27:36Z</time></trkpt><trkpt lat="44.13883508927649" lon="3.932516386814888"><ele>555.5</ele><time>2026-04-03T09:27:37Z</time></trkpt><trkpt lat="44.1387434882581" lon="3.932667920822898"><ele>556.0</ele><time>2026-04-03T09:27:38Z</time></trkpt><trkpt lat="44.13866325328085" lon="3.932822131183198"><ele>556.0</ele><time>2026-04-03T09:27:39Z</time></trkpt><trkpt lat="44.13856263541285" lon="3.9329492896205167"><ele>556.0</ele><time>2026-04-03T09:27:40Z</time></trkpt><trkpt lat="44.13846928836786" lon="3.9330852897128508"><ele>556.0</ele><time>2026-04-03T09:27:41Z</time></trkpt><trkpt lat="44.13837298597527" lon="3.933230535655354"><ele>556.0</ele><time>2026-04-03T09:27:42Z</time></trkpt><trkpt lat="44.13829197716619" lon="3.933369869147887"><ele>555.8</ele><time>2026-04-03T09:27:43Z</time></trkpt><trkpt lat="44.138231809192845" lon="3.933506031634841"><ele>555.6</ele><time>2026-04-03T09:27:44Z</time></trkpt><trkpt lat="44.138194489014744" lon="3.9336374564574785"><ele>555.4</ele><time>2026-04-03T09:27:45Z</time></trkpt><trkpt lat="44.13817227277953" lon="3.933777694840842"><ele>555.2</ele><time>2026-04-03T09:27:46Z</time></trkpt><trkpt lat="44.138160888485906" lon="3.933907465708012"><ele>555.0</ele><time>2026-04-03T09:27:47Z</time></trkpt><trkpt lat="44.13812716456853" lon="3.934008089749182"><ele>555.0</ele><time>2026-04-03T09:27:48Z</time></trkpt><trkpt lat="44.138070731832165" lon="3.9340715443420966"><ele>555.0</ele><time>2026-04-03T09:27:49Z</time></trkpt><trkpt lat="44.13796687681394" lon="3.9341035916675637"><ele>555.0</ele><time>2026-04-03T09:27:50Z</time></trkpt><trkpt lat="44.13786823895325" lon="3.9342090607936364"><ele>555.0</ele><time>2026-04-03T09:27:51Z</time></trkpt><trkpt lat="44.1377558888991" lon="3.9342934422625144"><ele>555.0</ele><time>2026-04-03T09:27:52Z</time></trkpt><trkpt lat="44.137632534239906" lon="3.9343564756626024"><ele>557.25</ele><time>2026-04-03T09:27:53Z</time></trkpt><trkpt lat="44.13751792014521" lon="3.9344473568252045"><ele>559.5</ele><time>2026-04-03T09:27:54Z</time></trkpt><trkpt lat="44.13739223761668" lon="3.9345226041933437"><ele>561.75</ele><time>2026-04-03T09:27:55Z</time></trkpt><trkpt lat="44.13726123007184" lon="3.9345854187333416"><ele>564.0</ele><time>2026-04-03T09:27:56Z</time></trkpt><trkpt lat="44.13713416003546" lon="3.9346876669571533"><ele>564.0</ele><time>2026-04-03T09:27:57Z</time></trkpt><trkpt lat="44.13702379512367" lon="3.934824516260614"><ele>564.0</ele><time>2026-04-03T09:27:58Z</time></trkpt><trkpt lat="44.136901198066155" lon="3.9348975340853474"><ele>564.0</ele><time>2026-04-03T09:27:59Z</time></trkpt><trkpt lat="44.13678320219717" lon="3.934976223621116"><ele>564.0</ele><time>2026-04-03T09:28:00Z</time></trkpt><trkpt lat="44.13668384357157" lon="3.935031958201721"><ele>564.0</ele><time>2026-04-03T09:28:01Z</time></trkpt><trkpt lat="44.1366067367863" lon="3.9350562796256"><ele>564.0</ele><time>2026-04-03T09:28:02Z</time></trkpt><trkpt lat="44.13653648021696" lon="3.935083588889174"><ele>564.0</ele><time>2026-04-03T09:28:03Z</time></trkpt><trkpt lat="44.136456727969815" lon="3.9351961293939812"><ele>564.0</ele><time>2026-04-03T09:28:05Z</time></trkpt><trkpt lat="44.13646281644835" lon="3.9353067174863607"><ele>564.0</ele><time>2026-04-03T09:28:06Z</time></trkpt><trkpt lat="44.136500636599756" lon="3.935391692111688"><ele>564.0</ele><time>2026-04-03T09:28:07Z</time></trkpt><trkpt lat="44.13653444755607" lon="3.9355234566334523"><ele>564.0</ele><time>2026-04-03T09:28:08Z</time></trkpt><trkpt lat="44.13659434591922" lon="3.9356464653461005"><ele>564.0</ele><time>2026-04-03T09:28:09Z</time></trkpt><trkpt lat="44.13667427255437" lon="3.93574851039456"><ele>564.0</ele><time>2026-04-03T09:28:10Z</time></trkpt><trkpt lat="44.136754222590206" lon="3.9358418886759496"><ele>564.0</ele><time>2026-04-03T09:28:11Z</time></trkpt><trkpt lat="44.13686441731656" lon="3.9359475035119127"><ele>559.0</ele><time>2026-04-03T09:28:12Z</time></trkpt><trkpt lat="44.13698153657997" lon="3.936050062792062"><ele>554.0</ele><time>2026-04-03T09:28:13Z</time></trkpt><trkpt lat="44.13710308733056" lon="3.936171806405897"><ele>549.0</ele><time>2026-04-03T09:28:14Z</time></trkpt><trkpt lat="44.13720790064959" lon="3.9362733124554716"><ele>544.0</ele><time>2026-04-03T09:28:15Z</time></trkpt><trkpt lat="44.13730279663994" lon="3.9363423267334587"><ele>548.8</ele><time>2026-04-03T09:28:16Z</time></trkpt><trkpt lat="44.13740581680762" lon="3.936396990334241"><ele>553.5999999999999</ele><time>2026-04-03T09:28:17Z</time></trkpt><trkpt lat="44.13750182992608" lon="3.9364423341037256"><ele>558.4</ele><time>2026-04-03T09:28:18Z</time></trkpt><trkpt lat="44.13759718804327" lon="3.9364881761306543"><ele>563.1999999999999</ele><time>2026-04-03T09:28:19Z</time></trkpt><trkpt lat="44.13769614586457" lon="3.9365340070097807"><ele>568.0</ele><time>2026-04-03T09:28:20Z</time></trkpt><trkpt lat="44.137800294843316" lon="3.9365551932117384"><ele>568.0</ele><time>2026-04-03T09:28:21Z</time></trkpt><trkpt lat="44.13792839271888" lon="3.936561370010487"><ele>568.0</ele><time>2026-04-03T09:28:22Z</time></trkpt><trkpt lat="44.13804912020271" lon="3.936575594477089"><ele>568.0</ele><time>2026-04-03T09:28:23Z</time></trkpt><trkpt lat="44.13818487472606" lon="3.936568580910549"><ele>568.0</ele><time>2026-04-03T09:28:24Z</time></trkpt><trkpt lat="44.13832540771816" lon="3.9365414884159837"><ele>571.0</ele><time>2026-04-03T09:28:25Z</time></trkpt><trkpt lat="44.138478117069724" lon="3.936523542036731"><ele>574.0</ele><time>2026-04-03T09:28:26Z</time></trkpt><trkpt lat="44.13863867000878" lon="3.9365197595559116"><ele>577.0</ele><time>2026-04-03T09:28:27Z</time></trkpt><trkpt lat="44.138811972269046" lon="3.9365295596242977"><ele>577.0</ele><time>2026-04-03T09:28:28Z</time></trkpt><trkpt lat="44.138977971067796" lon="3.936561403687546"><ele>577.0</ele><time>2026-04-03T09:28:29Z</time></trkpt><trkpt lat="44.13913184777824" lon="3.9365977582418004"><ele>577.0</ele><time>2026-04-03T09:28:30Z</time></trkpt><trkpt lat="44.139270475460904" lon="3.936630800784874"><ele>578.25</ele><time>2026-04-03T09:28:31Z</time></trkpt><trkpt lat="44.139398110799924" lon="3.9366548399483756"><ele>579.5</ele><time>2026-04-03T09:28:32Z</time></trkpt><trkpt lat="44.139514405829374" lon="3.936672321519119"><ele>580.75</ele><time>2026-04-03T09:28:33Z</time></trkpt><trkpt lat="44.13963841656799" lon="3.936677356648096"><ele>582.0</ele><time>2026-04-03T09:28:34Z</time></trkpt><trkpt lat="44.139757888817165" lon="3.936653008619246"><ele>584.25</ele><time>2026-04-03T09:28:35Z</time></trkpt><trkpt lat="44.139884757757095" lon="3.9365955484210073"><ele>586.5</ele><time>2026-04-03T09:28:36Z</time></trkpt><trkpt lat="44.14002610140117" lon="3.936524867934525"><ele>588.75</ele><time>2026-04-03T09:28:37Z</time></trkpt><trkpt lat="44.14015755143168" lon="3.93646175350546"><ele>591.0</ele><time>2026-04-03T09:28:38Z</time></trkpt><trkpt lat="44.1402805270523" lon="3.9363986557874013"><ele>591.0</ele><time>2026-04-03T09:28:39Z</time></trkpt><trkpt lat="44.140376211617415" lon="3.936333048894925"><ele>591.0</ele><time>2026-04-03T09:28:40Z</time></trkpt><trkpt lat="44.14046238935307" lon="3.936258018457931"><ele>591.0</ele><time>2026-04-03T09:28:41Z</time></trkpt><trkpt lat="44.14056117414328" lon="3.936154092360827"><ele>591.0</ele><time>2026-04-03T09:28:42Z</time></trkpt><trkpt lat="44.14062941150854" lon="3.936020841851871"><ele>591.0</ele><time>2026-04-03T09:28:43Z</time></trkpt><trkpt lat="44.14069655736785" lon="3.93591573774728"><ele>592.4</ele><time>2026-04-03T09:28:44Z</time></trkpt><trkpt lat="44.140758029538695" lon="3.9358640645839906"><ele>593.8</ele><time>2026-04-03T09:28:45Z</time></trkpt><trkpt lat="44.140832082836624" lon="3.9358805592250405"><ele>595.1999999999999</ele><time>2026-04-03T09:28:47Z</time></trkpt><trkpt lat="44.14086508613219" lon="3.9359899306397947"><ele>596.6</ele><time>2026-04-03T09:28:49Z</time></trkpt><trkpt lat="44.1408870300835" lon="3.9362195651448952"><ele>598.0</ele><time>2026-04-03T09:28:51Z</time></trkpt><trkpt lat="44.14093327720918" lon="3.93634913996848"><ele>598.0</ele><time>2026-04-03T09:28:52Z</time></trkpt><trkpt lat="44.14098434410965" lon="3.9364604758720687"><ele>598.0</ele><time>2026-04-03T09:28:53Z</time></trkpt><trkpt lat="44.14104724672064" lon="3.936591982503465"><ele>598.0</ele><time>2026-04-03T09:28:54Z</time></trkpt><trkpt lat="44.14110844371805" lon="3.936708058179423"><ele>598.0</ele><time>2026-04-03T09:28:55Z</time></trkpt><trkpt lat="44.141157973651055" lon="3.9368144279846993"><ele>598.0</ele><time>2026-04-03T09:28:56Z</time></trkpt><trkpt lat="44.141150875741936" lon="3.936950847504526"><ele>600.25</ele><time>2026-04-03T09:28:58Z</time></trkpt><trkpt lat="44.14107267713884" lon="3.9370553348506783"><ele>602.5</ele><time>2026-04-03T09:29:00Z</time></trkpt><trkpt lat="44.140961516375214" lon="3.937096081304264"><ele>604.75</ele><time>2026-04-03T09:29:01Z</time></trkpt><trkpt lat="44.14085187007128" lon="3.9372185831077395"><ele>607.0</ele><time>2026-04-03T09:29:02Z</time></trkpt><trkpt lat="44.14076066657767" lon="3.937350010322818"><ele>605.5</ele><time>2026-04-03T09:29:03Z</time></trkpt><trkpt lat="44.14068988047755" lon="3.9375204529546264"><ele>604.0</ele><time>2026-04-03T09:29:04Z</time></trkpt><trkpt lat="44.14063028155677" lon="3.9376594137067458"><ele>602.5</ele><time>2026-04-03T09:29:05Z</time></trkpt><trkpt lat="44.14056163599233" lon="3.937771345966759"><ele>601.0</ele><time>2026-04-03T09:29:06Z</time></trkpt><trkpt lat="44.140522640754426" lon="3.9379001775812217"><ele>601.0</ele><time>2026-04-03T09:29:07Z</time></trkpt><trkpt lat="44.14050482335076" lon="3.93802474060014"><ele>601.0</ele><time>2026-04-03T09:29:08Z</time></trkpt><trkpt lat="44.14051912650292" lon="3.938162963253703"><ele>601.0</ele><time>2026-04-03T09:29:09Z</time></trkpt><trkpt lat="44.14052189355258" lon="3.938295512061107"><ele>601.0</ele><time>2026-04-03T09:29:10Z</time></trkpt><trkpt lat="44.14050213197145" lon="3.938397316657432"><ele>601.0</ele><time>2026-04-03T09:29:11Z</time></trkpt><trkpt lat="44.14042762022396" lon="3.938442026146296"><ele>601.0</ele><time>2026-04-03T09:29:12Z</time></trkpt><trkpt lat="44.14033716771903" lon="3.9384658776132797"><ele>604.75</ele><time>2026-04-03T09:29:13Z</time></trkpt><trkpt lat="44.14022124948123" lon="3.938541895838553"><ele>608.5</ele><time>2026-04-03T09:29:14Z</time></trkpt><trkpt lat="44.140072427157925" lon="3.9385889052586727"><ele>612.25</ele><time>2026-04-03T09:29:15Z</time></trkpt><trkpt lat="44.139925297879465" lon="3.9386064917588928"><ele>616.0</ele><time>2026-04-03T09:29:16Z</time></trkpt><trkpt lat="44.139794645752005" lon="3.9386407945495736"><ele>616.0</ele><time>2026-04-03T09:29:17Z</time></trkpt><trkpt lat="44.13967055878577" lon="3.9386982164947373"><ele>616.0</ele><time>2026-04-03T09:29:18Z</time></trkpt><trkpt lat="44.139558322050064" lon="3.9387550926766988"><ele>616.0</ele><time>2026-04-03T09:29:19Z</time></trkpt><trkpt lat="44.13944940470728" lon="3.9388347561579438"><ele>616.0</ele><time>2026-04-03T09:29:20Z</time></trkpt><trkpt lat="44.139330286211695" lon="3.9389320087425466"><ele>616.0</ele><time>2026-04-03T09:29:21Z</time></trkpt><trkpt lat="44.13920477117461" lon="3.9390164350038943"><ele>616.0</ele><time>2026-04-03T09:29:22Z</time></trkpt><trkpt lat="44.139071698244656" lon="3.939131890550265"><ele>616.0</ele><time>2026-04-03T09:29:23Z</time></trkpt><trkpt lat="44.138945333925136" lon="3.939244049498584"><ele>616.0</ele><time>2026-04-03T09:29:24Z</time></trkpt><trkpt lat="44.13881207242536" lon="3.939366141022994"><ele>616.5</ele><time>2026-04-03T09:29:25Z</time></trkpt><trkpt lat="44.138704521946615" lon="3.939498212606627"><ele>617.0</ele><time>2026-04-03T09:29:26Z</time></trkpt><trkpt lat="44.138618715103036" lon="3.9396380375007216"><ele>617.5</ele><time>2026-04-03T09:29:27Z</time></trkpt><trkpt lat="44.13851479204939" lon="3.939766781948006"><ele>618.0</ele><time>2026-04-03T09:29:28Z</time></trkpt><trkpt lat="44.13841467040736" lon="3.9398985116288228"><ele>618.0</ele><time>2026-04-03T09:29:29Z</time></trkpt><trkpt lat="44.13830218201328" lon="3.9400299318788163"><ele>618.0</ele><time>2026-04-03T09:29:30Z</time></trkpt><trkpt lat="44.13820536206654" lon="3.940181302232506"><ele>618.0</ele><time>2026-04-03T09:29:31Z</time></trkpt><trkpt lat="44.138096487178636" lon="3.940362537576615"><ele>617.6666666666666</ele><time>2026-04-03T09:29:32Z</time></trkpt><trkpt lat="44.137990211133435" lon="3.9405280219467866"><ele>617.3333333333333</ele><time>2026-04-03T09:29:33Z</time></trkpt><trkpt lat="44.13786320495558" lon="3.9407351436713074"><ele>617.0</ele><time>2026-04-03T09:29:34Z</time></trkpt><trkpt lat="44.13776949476789" lon="3.9409023078225958"><ele>619.75</ele><time>2026-04-03T09:29:35Z</time></trkpt><trkpt lat="44.13766534265851" lon="3.9410309066877294"><ele>622.5</ele><time>2026-04-03T09:29:36Z</time></trkpt><trkpt lat="44.1375627466954" lon="3.941176863068987"><ele>625.25</ele><time>2026-04-03T09:29:37Z</time></trkpt><trkpt lat="44.137495335981455" lon="3.941279878156554"><ele>628.0</ele><time>2026-04-03T09:29:38Z</time></trkpt><trkpt lat="44.13744497874187" lon="3.9413676438383973"><ele>627.9999999999999</ele><time>2026-04-03T09:29:39Z</time></trkpt><trkpt lat="44.13741478453823" lon="3.9414489961933628"><ele>628.0</ele><time>2026-04-03T09:29:40Z</time></trkpt><trkpt lat="44.13738577617225" lon="3.9415372110086784"><ele>628.0</ele><time>2026-04-03T09:29:41Z</time></trkpt><trkpt lat="44.137378236374886" lon="3.9416446173541018"><ele>628.0</ele><time>2026-04-03T09:29:42Z</time></trkpt><trkpt lat="44.13740027026373" lon="3.941726891348491"><ele>628.0</ele><time>2026-04-03T09:29:43Z</time></trkpt><trkpt lat="44.137500386439925" lon="3.9417745573878733"><ele>627.9999999999999</ele><time>2026-04-03T09:29:45Z</time></trkpt><trkpt lat="44.13756717472227" lon="3.9417823841633735"><ele>628.0</ele><time>2026-04-03T09:29:46Z</time></trkpt><trkpt lat="44.137631773816" lon="3.9417545642738374"><ele>628.0</ele><time>2026-04-03T09:29:47Z</time></trkpt><trkpt lat="44.13772832049373" lon="3.941693836169038"><ele>628.0</ele><time>2026-04-03T09:29:48Z</time></trkpt><trkpt lat="44.1378250954255" lon="3.9415894690107702"><ele>628.0</ele><time>2026-04-03T09:29:49Z</time></trkpt><trkpt lat="44.1379169608217" lon="3.9414658439457386"><ele>628.0</ele><time>2026-04-03T09:29:50Z</time></trkpt><trkpt lat="44.137998572020905" lon="3.9413847662785275"><ele>628.0</ele><time>2026-04-03T09:29:51Z</time></trkpt><trkpt lat="44.13806330731586" lon="3.9413370464135387"><ele>628.0</ele><time>2026-04-03T09:29:52Z</time></trkpt><trkpt lat="44.138126035246856" lon="3.941306073886423"><ele>628.0</ele><time>2026-04-03T09:29:53Z</time></trkpt><trkpt lat="44.138201877487845" lon="3.9413317475884555"><ele>628.0</ele><time>2026-04-03T09:29:54Z</time></trkpt><trkpt lat="44.13828827310722" lon="3.9414046771929687"><ele>628.0</ele><time>2026-04-03T09:29:55Z</time></trkpt><trkpt lat="44.138410863254066" lon="3.9414782142076987"><ele>630.0</ele><time>2026-04-03T09:29:56Z</time></trkpt><trkpt lat="44.138560313068446" lon="3.9415507536131487"><ele>632.0</ele><time>2026-04-03T09:29:57Z</time></trkpt><trkpt lat="44.13871363347361" lon="3.94164572676139"><ele>634.0</ele><time>2026-04-03T09:29:58Z</time></trkpt><trkpt lat="44.138906346209914" lon="3.941752723662162"><ele>631.0</ele><time>2026-04-03T09:29:59Z</time></trkpt><trkpt lat="44.139079981076996" lon="3.9418514623683123"><ele>628.0</ele><time>2026-04-03T09:30:00Z</time></trkpt><trkpt lat="44.139219014885796" lon="3.9419514197519874"><ele>625.0</ele><time>2026-04-03T09:30:01Z</time></trkpt><trkpt lat="44.13933148128867" lon="3.9420352429799874"><ele>625.0</ele><time>2026-04-03T09:30:02Z</time></trkpt><trkpt lat="44.139437315402155" lon="3.942124740408854"><ele>625.0</ele><time>2026-04-03T09:30:03Z</time></trkpt><trkpt lat="44.13953849771439" lon="3.9422260108886844"><ele>625.0</ele><time>2026-04-03T09:30:04Z</time></trkpt><trkpt lat="44.139634320965264" lon="3.9423363047620246"><ele>625.0</ele><time>2026-04-03T09:30:05Z</time></trkpt><trkpt lat="44.139740561198565" lon="3.9424376142831776"><ele>625.75</ele><time>2026-04-03T09:30:06Z</time></trkpt><trkpt lat="44.139837828534404" lon="3.942555586818226"><ele>626.5</ele><time>2026-04-03T09:30:07Z</time></trkpt><trkpt lat="44.139928704837075" lon="3.9426664783339107"><ele>627.25</ele><time>2026-04-03T09:30:08Z</time></trkpt><trkpt lat="44.140034091076075" lon="3.9427429120491073"><ele>628.0</ele><time>2026-04-03T09:30:09Z</time></trkpt><trkpt lat="44.14014214018369" lon="3.9428112860710947"><ele>628.0</ele><time>2026-04-03T09:30:10Z</time></trkpt><trkpt lat="44.14025418717733" lon="3.9428854547278673"><ele>628.0</ele><time>2026-04-03T09:30:11Z</time></trkpt><trkpt lat="44.1403718535886" lon="3.942962407391742"><ele>628.0</ele><time>2026-04-03T09:30:12Z</time></trkpt><trkpt lat="44.14049432688988" lon="3.9430198362680446"><ele>628.0</ele><time>2026-04-03T09:30:13Z</time></trkpt><trkpt lat="44.14061544927762" lon="3.9430905030497807"><ele>633.3333333333334</ele><time>2026-04-03T09:30:14Z</time></trkpt><trkpt lat="44.14074866658077" lon="3.9431686221619304"><ele>638.6666666666666</ele><time>2026-04-03T09:30:15Z</time></trkpt><trkpt lat="44.140891297004075" lon="3.9432712810006088"><ele>644.0</ele><time>2026-04-03T09:30:16Z</time></trkpt><trkpt lat="44.141046023687025" lon="3.943328561552697"><ele>639.3333333333333</ele><time>2026-04-03T09:30:17Z</time></trkpt><trkpt lat="44.14120455031927" lon="3.943431215987592"><ele>634.6666666666666</ele><time>2026-04-03T09:30:18Z</time></trkpt><trkpt lat="44.141354815705604" lon="3.943529124372185"><ele>630.0</ele><time>2026-04-03T09:30:19Z</time></trkpt><trkpt lat="44.14149527734858" lon="3.9436289151409243"><ele>633.5</ele><time>2026-04-03T09:30:20Z</time></trkpt><trkpt lat="44.14161870972898" lon="3.943726605935396"><ele>637.0</ele><time>2026-04-03T09:30:21Z</time></trkpt><trkpt lat="44.14171637851456" lon="3.943815707419383"><ele>640.5</ele><time>2026-04-03T09:30:22Z</time></trkpt><trkpt lat="44.141789866102805" lon="3.9438879516872922"><ele>644.0</ele><time>2026-04-03T09:30:23Z</time></trkpt><trkpt lat="44.141860062420385" lon="3.9440038564423867"><ele>644.0</ele><time>2026-04-03T09:30:25Z</time></trkpt><trkpt lat="44.14189995949538" lon="3.944081011125686"><ele>644.0</ele><time>2026-04-03T09:30:28Z</time></trkpt><trkpt lat="44.141967374307754" lon="3.9439385357263603"><ele>644.0</ele><time>2026-04-03T09:30:31Z</time></trkpt><trkpt lat="44.14197458768084" lon="3.9438460999634"><ele>644.0</ele><time>2026-04-03T09:30:33Z</time></trkpt><trkpt lat="44.14201275665007" lon="3.943769147490366"><ele>644.0</ele><time>2026-04-03T09:30:35Z</time></trkpt><trkpt lat="44.142061358273445" lon="3.943639914049307"><ele>644.0</ele><time>2026-04-03T09:30:37Z</time></trkpt><trkpt lat="44.142121844778295" lon="3.9434726380747525"><ele>644.0</ele><time>2026-04-03T09:30:39Z</time></trkpt><trkpt lat="44.14213886489575" lon="3.9433873830544344"><ele>644.0</ele><time>2026-04-03T09:30:40Z</time></trkpt><trkpt lat="44.14214695587676" lon="3.943203037389143"><ele>644.0</ele><time>2026-04-03T09:30:42Z</time></trkpt><trkpt lat="44.14218398912048" lon="3.9430487058400683"><ele>644.0</ele><time>2026-04-03T09:30:44Z</time></trkpt><trkpt lat="44.142222339812065" lon="3.94290824157102"><ele>644.0</ele><time>2026-04-03T09:30:46Z</time></trkpt><trkpt lat="44.14227388207051" lon="3.942766919501419"><ele>645.2857142857143</ele><time>2026-04-03T09:30:48Z</time></trkpt><trkpt lat="44.14229817835932" lon="3.9426749309746416"><ele>646.5714285714286</ele><time>2026-04-03T09:30:49Z</time></trkpt><trkpt lat="44.142325370165494" lon="3.9425910086637255"><ele>647.8571428571429</ele><time>2026-04-03T09:30:50Z</time></trkpt><trkpt lat="44.14235457858195" lon="3.942503854521811"><ele>649.1428571428571</ele><time>2026-04-03T09:30:51Z</time></trkpt><trkpt lat="44.14237493313597" lon="3.9424045901724134"><ele>650.4285714285714</ele><time>2026-04-03T09:30:52Z</time></trkpt><trkpt lat="44.142404345233466" lon="3.942306994192614"><ele>651.7142857142858</ele><time>2026-04-03T09:30:53Z</time></trkpt><trkpt lat="44.142437387604076" lon="3.9421860900570067"><ele>653.0</ele><time>2026-04-03T09:30:54Z</time></trkpt><trkpt lat="44.142456965347456" lon="3.9420657002475794"><ele>653.0</ele><time>2026-04-03T09:30:55Z</time></trkpt><trkpt lat="44.14247667540613" lon="3.941945299465261"><ele>653.0</ele><time>2026-04-03T09:30:56Z</time></trkpt><trkpt lat="44.14251854785043" lon="3.9418514603506707"><ele>653.0</ele><time>2026-04-03T09:30:57Z</time></trkpt><trkpt lat="44.14257018436579" lon="3.9417290927396507"><ele>653.0</ele><time>2026-04-03T09:30:58Z</time></trkpt><trkpt lat="44.142621958446185" lon="3.9415864699945797"><ele>653.0</ele><time>2026-04-03T09:30:59Z</time></trkpt><trkpt lat="44.142657740690936" lon="3.9414768525548056"><ele>656.25</ele><time>2026-04-03T09:31:00Z</time></trkpt><trkpt lat="44.14270052099522" lon="3.9413034684216726"><ele>659.5</ele><time>2026-04-03T09:31:02Z</time></trkpt><trkpt lat="44.142709167671356" lon="3.9411163234299846"><ele>662.75</ele><time>2026-04-03T09:31:04Z</time></trkpt><trkpt lat="44.142723779411874" lon="3.941004504182443"><ele>666.0</ele><time>2026-04-03T09:31:05Z</time></trkpt><trkpt lat="44.14282188075584" lon="3.940885444114108"><ele>668.4</ele><time>2026-04-03T09:31:07Z</time></trkpt><trkpt lat="44.14289324913712" lon="3.9407991678622416"><ele>670.8</ele><time>2026-04-03T09:31:08Z</time></trkpt><trkpt lat="44.142963905896046" lon="3.940706979187482"><ele>673.1999999999999</ele><time>2026-04-03T09:31:09Z</time></trkpt><trkpt lat="44.143034676662744" lon="3.940594749335584"><ele>675.5999999999999</ele><time>2026-04-03T09:31:10Z</time></trkpt><trkpt lat="44.14310417088532" lon="3.9404789828077873"><ele>678.0</ele><time>2026-04-03T09:31:11Z</time></trkpt><trkpt lat="44.14315681385218" lon="3.940398570434419"><ele>678.0</ele><time>2026-04-03T09:31:12Z</time></trkpt><trkpt lat="44.1431907690097" lon="3.9403132291063363"><ele>678.0</ele><time>2026-04-03T09:31:13Z</time></trkpt><trkpt lat="44.143219693677615" lon="3.940199684506208"><ele>678.0</ele><time>2026-04-03T09:31:14Z</time></trkpt><trkpt lat="44.14325149061745" lon="3.940110955624938"><ele>678.0</ele><time>2026-04-03T09:31:15Z</time></trkpt><trkpt lat="44.14330482755408" lon="3.940006672146418"><ele>678.0</ele><time>2026-04-03T09:31:16Z</time></trkpt><trkpt lat="44.143380431610225" lon="3.9398804988637584"><ele>678.0</ele><time>2026-04-03T09:31:17Z</time></trkpt><trkpt lat="44.14345118768903" lon="3.9397572895075434"><ele>677.6666666666666</ele><time>2026-04-03T09:31:18Z</time></trkpt><trkpt lat="44.14347633113195" lon="3.9396704216355705"><ele>677.3333333333334</ele><time>2026-04-03T09:31:20Z</time></trkpt><trkpt lat="44.1435104220611" lon="3.9395945308395524"><ele>677.0</ele><time>2026-04-03T09:31:23Z</time></trkpt><trkpt lat="44.14345843565331" lon="3.9394998736645714"><ele>676.6666666666667</ele><time>2026-04-03T09:31:28Z</time></trkpt><trkpt lat="44.14335725542381" lon="3.9394259254336847"><ele>676.3333333333334</ele><time>2026-04-03T09:31:30Z</time></trkpt><trkpt lat="44.14329295118259" lon="3.9393273333573475"><ele>676.0</ele><time>2026-04-03T09:31:31Z</time></trkpt><trkpt lat="44.143240803939236" lon="3.939267133530648"><ele>675.4</ele><time>2026-04-03T09:31:32Z</time></trkpt><trkpt lat="44.1431841204513" lon="3.939143628392092"><ele>674.8</ele><time>2026-04-03T09:31:34Z</time></trkpt><trkpt lat="44.14321767702617" lon="3.9390010171529033"><ele>674.1999999999999</ele><time>2026-04-03T09:31:36Z</time></trkpt><trkpt lat="44.143268785505064" lon="3.938936810275282"><ele>673.5999999999999</ele><time>2026-04-03T09:31:37Z</time></trkpt><trkpt lat="44.143358841582035" lon="3.938856276187665"><ele>673.0</ele><time>2026-04-03T09:31:38Z</time></trkpt><trkpt lat="44.1434307148289" lon="3.9387639511573456"><ele>673.8</ele><time>2026-04-03T09:31:39Z</time></trkpt><trkpt lat="44.14346356371786" lon="3.938676736736546"><ele>674.5999999999999</ele><time>2026-04-03T09:31:40Z</time></trkpt><trkpt lat="44.14346180856095" lon="3.938516678330527"><ele>675.4000000000001</ele><time>2026-04-03T09:31:42Z</time></trkpt><trkpt lat="44.1434713276259" lon="3.9383886135911474"><ele>676.2</ele><time>2026-04-03T09:31:44Z</time></trkpt><trkpt lat="44.14351310762984" lon="3.938232700859107"><ele>677.0</ele><time>2026-04-03T09:31:46Z</time></trkpt><trkpt lat="44.143508744845406" lon="3.938093292451663"><ele>677.0</ele><time>2026-04-03T09:31:48Z</time></trkpt><trkpt lat="44.14346889970246" lon="3.9379455881387653"><ele>677.0</ele><time>2026-04-03T09:31:50Z</time></trkpt><trkpt lat="44.14343349902092" lon="3.9377718301276436"><ele>677.0</ele><time>2026-04-03T09:31:52Z</time></trkpt><trkpt lat="44.14341086117023" lon="3.937685597812856"><ele>677.0</ele><time>2026-04-03T09:31:53Z</time></trkpt><trkpt lat="44.143382871557165" lon="3.9375842416367"><ele>677.0</ele><time>2026-04-03T09:31:54Z</time></trkpt><trkpt lat="44.1433489390302" lon="3.937497729617944"><ele>676.5</ele><time>2026-04-03T09:31:55Z</time></trkpt><trkpt lat="44.14330597722423" lon="3.9374297196223287"><ele>676.0</ele><time>2026-04-03T09:31:56Z</time></trkpt><trkpt lat="44.14323461873328" lon="3.9372778695570374"><ele>675.5</ele><time>2026-04-03T09:31:58Z</time></trkpt><trkpt lat="44.14319445337196" lon="3.937208107545509"><ele>675.0</ele><time>2026-04-03T09:31:59Z</time></trkpt><trkpt lat="44.1431497211744" lon="3.937112472690955"><ele>674.5</ele><time>2026-04-03T09:32:02Z</time></trkpt><trkpt lat="44.14309210261045" lon="3.9369872191823947"><ele>674.0</ele><time>2026-04-03T09:32:04Z</time></trkpt><trkpt lat="44.14300666269665" lon="3.9368662682265856"><ele>670.8333333333333</ele><time>2026-04-03T09:32:06Z</time></trkpt><trkpt lat="44.14295927485856" lon="3.936760552832649"><ele>667.6666666666666</ele><time>2026-04-03T09:32:08Z</time></trkpt><trkpt lat="44.142924710080294" lon="3.9366266091448825"><ele>664.5</ele><time>2026-04-03T09:32:10Z</time></trkpt><trkpt lat="44.14292577740764" lon="3.936530086591177"><ele>661.3333333333334</ele><time>2026-04-03T09:32:12Z</time></trkpt><trkpt lat="44.14294069384473" lon="3.9366210046456853"><ele>658.1666666666667</ele><time>2026-04-03T09:32:44Z</time></trkpt><trkpt lat="44.142981570177" lon="3.936705980470139"><ele>655.0</ele><time>2026-04-03T09:32:46Z</time></trkpt><trkpt lat="44.143015329025125" lon="3.9368072493020785"><ele>655.0</ele><time>2026-04-03T09:32:47Z</time></trkpt><trkpt lat="44.1430522926065" lon="3.9368868198427673"><ele>655.0</ele><time>2026-04-03T09:32:49Z</time></trkpt><trkpt lat="44.143106025570326" lon="3.9369361523102"><ele>655.0</ele><time>2026-04-03T09:32:51Z</time></trkpt><trkpt lat="44.14315541277253" lon="3.9370057018804325"><ele>655.0</ele><time>2026-04-03T09:32:52Z</time></trkpt><trkpt lat="44.14318391154651" lon="3.9371150103567"><ele>655.0</ele><time>2026-04-03T09:32:55Z</time></trkpt><trkpt lat="44.14324068828202" lon="3.9371961983737975"><ele>655.0</ele><time>2026-04-03T09:32:58Z</time></trkpt><trkpt lat="44.14329563471049" lon="3.9372996807392497"><ele>658.8</ele><time>2026-04-03T09:33:00Z</time></trkpt><trkpt lat="44.1433317515627" lon="3.9374072808976717"><ele>662.6</ele><time>2026-04-03T09:33:02Z</time></trkpt><trkpt lat="44.143393663404005" lon="3.9375308563330695"><ele>666.4000000000001</ele><time>2026-04-03T09:33:04Z</time></trkpt><trkpt lat="44.143422522045896" lon="3.9376282527691777"><ele>670.2</ele><time>2026-04-03T09:33:05Z</time></trkpt><trkpt lat="44.14347077199801" lon="3.937774251761885"><ele>674.0</ele><time>2026-04-03T09:33:07Z</time></trkpt><trkpt lat="44.143493058560445" lon="3.9379732751672063"><ele>674.6</ele><time>2026-04-03T09:33:09Z</time></trkpt><trkpt lat="44.143531884566215" lon="3.9381275728502434"><ele>675.2</ele><time>2026-04-03T09:33:11Z</time></trkpt><trkpt lat="44.143501707911405" lon="3.938300269555809"><ele>675.8000000000001</ele><time>2026-04-03T09:33:13Z</time></trkpt><trkpt lat="44.14346688057068" lon="3.9383800397285342"><ele>676.4000000000001</ele><time>2026-04-03T09:33:14Z</time></trkpt><trkpt lat="44.14345645602303" lon="3.9385117885503145"><ele>677.0</ele><time>2026-04-03T09:33:16Z</time></trkpt><trkpt lat="44.143452038262666" lon="3.938622612825241"><ele>677.8</ele><time>2026-04-03T09:33:17Z</time></trkpt><trkpt lat="44.143424093218144" lon="3.9387309914568993"><ele>678.6</ele><time>2026-04-03T09:33:19Z</time></trkpt><trkpt lat="44.14338992558667" lon="3.9388072064743587"><ele>679.4</ele><time>2026-04-03T09:33:20Z</time></trkpt><trkpt lat="44.14327811079916" lon="3.938937829090713"><ele>680.1999999999999</ele><time>2026-04-03T09:33:22Z</time></trkpt><trkpt lat="44.14323230275585" lon="3.939007580627179"><ele>681.0</ele><time>2026-04-03T09:33:23Z</time></trkpt><trkpt lat="44.14320824211038" lon="3.9391390169586336"><ele>680.1666666666666</ele><time>2026-04-03T09:33:25Z</time></trkpt><trkpt lat="44.14326710778616" lon="3.9392555974642023"><ele>679.3333333333334</ele><time>2026-04-03T09:33:27Z</time></trkpt><trkpt lat="44.14335476556773" lon="3.939341004952426"><ele>678.5</ele><time>2026-04-03T09:33:29Z</time></trkpt><trkpt lat="44.143415829616146" lon="3.939396030225511"><ele>677.6666666666667</ele><time>2026-04-03T09:33:30Z</time></trkpt><trkpt lat="44.14347185526723" lon="3.93944776633197"><ele>676.8333333333334</ele><time>2026-04-03T09:33:31Z</time></trkpt><trkpt lat="44.14353667234235" lon="3.939464411181902"><ele>676.0</ele><time>2026-04-03T09:33:33Z</time></trkpt><trkpt lat="44.143588065363325" lon="3.9395181606953753"><ele>676.0</ele><time>2026-04-03T09:33:39Z</time></trkpt><trkpt lat="44.14349388799631" lon="3.939708715618562"><ele>676.0</ele><time>2026-04-03T09:33:41Z</time></trkpt><trkpt lat="44.14345777417709" lon="3.939816477069749"><ele>676.0</ele><time>2026-04-03T09:33:42Z</time></trkpt><trkpt lat="44.143404916051615" lon="3.939900820427312"><ele>676.0</ele><time>2026-04-03T09:33:43Z</time></trkpt><trkpt lat="44.143355860746276" lon="3.9399776858692483"><ele>676.0</ele><time>2026-04-03T09:33:44Z</time></trkpt><trkpt lat="44.143301769123596" lon="3.9400300079315884"><ele>676.4</ele><time>2026-04-03T09:33:45Z</time></trkpt><trkpt lat="44.143240477549284" lon="3.9401632517712093"><ele>676.8</ele><time>2026-04-03T09:33:47Z</time></trkpt><trkpt lat="44.1431987752569" lon="3.940256848841386"><ele>677.1999999999999</ele><time>2026-04-03T09:33:48Z</time></trkpt><trkpt lat="44.14313258414338" lon="3.9404259591138184"><ele>677.5999999999999</ele><time>2026-04-03T09:33:50Z</time></trkpt><trkpt lat="44.14308613618742" lon="3.9405135870709542"><ele>678.0</ele><time>2026-04-03T09:33:51Z</time></trkpt><trkpt lat="44.14302701416929" lon="3.940595607481308"><ele>678.0</ele><time>2026-04-03T09:33:52Z</time></trkpt><trkpt lat="44.1429695999336" lon="3.940692506485828"><ele>678.0</ele><time>2026-04-03T09:33:53Z</time></trkpt><trkpt lat="44.142912599412405" lon="3.940775664293959"><ele>678.0</ele><time>2026-04-03T09:33:54Z</time></trkpt><trkpt lat="44.142847851230016" lon="3.940863200488331"><ele>678.0</ele><time>2026-04-03T09:33:55Z</time></trkpt><trkpt lat="44.14279268357534" lon="3.940944376195072"><ele>678.0</ele><time>2026-04-03T09:33:56Z</time></trkpt><trkpt lat="44.14274066577911" lon="3.941019358657597"><ele>678.0</ele><time>2026-04-03T09:33:57Z</time></trkpt><trkpt lat="44.142714584729944" lon="3.9411492261665666"><ele>676.0</ele><time>2026-04-03T09:33:59Z</time></trkpt><trkpt lat="44.142724934848374" lon="3.941315770318859"><ele>674.0</ele><time>2026-04-03T09:34:01Z</time></trkpt><trkpt lat="44.142716695547755" lon="3.9414054234824603"><ele>672.0</ele><time>2026-04-03T09:34:02Z</time></trkpt><trkpt lat="44.142684324491874" lon="3.9415031090458794"><ele>670.0</ele><time>2026-04-03T09:34:03Z</time></trkpt><trkpt lat="44.14265085732401" lon="3.941592562522454"><ele>668.0</ele><time>2026-04-03T09:34:04Z</time></trkpt><trkpt lat="44.14261131240325" lon="3.9416869058290023"><ele>666.0</ele><time>2026-04-03T09:34:05Z</time></trkpt><trkpt lat="44.14257168874849" lon="3.941794476531905"><ele>666.8333333333334</ele><time>2026-04-03T09:34:06Z</time></trkpt><trkpt lat="44.14252432616639" lon="3.9419177238858794"><ele>667.6666666666666</ele><time>2026-04-03T09:34:07Z</time></trkpt><trkpt lat="44.14248966473374" lon="3.942034306550404"><ele>668.5</ele><time>2026-04-03T09:34:08Z</time></trkpt><trkpt lat="44.1424628591423" lon="3.9421424536287373"><ele>669.3333333333333</ele><time>2026-04-03T09:34:09Z</time></trkpt><trkpt lat="44.142442554689616" lon="3.9422673965996555"><ele>670.1666666666666</ele><time>2026-04-03T09:34:10Z</time></trkpt><trkpt lat="44.14240770307368" lon="3.942366740402642"><ele>671.0</ele><time>2026-04-03T09:34:11Z</time></trkpt><trkpt lat="44.14237232088665" lon="3.94249751477751"><ele>667.4</ele><time>2026-04-03T09:34:12Z</time></trkpt><trkpt lat="44.14233845596961" lon="3.942626005444173"><ele>663.8</ele><time>2026-04-03T09:34:13Z</time></trkpt><trkpt lat="44.14230368681757" lon="3.9427428607990787"><ele>660.1999999999999</ele><time>2026-04-03T09:34:14Z</time></trkpt><trkpt lat="44.14226215046209" lon="3.9428653518362884"><ele>656.5999999999999</ele><time>2026-04-03T09:34:15Z</time></trkpt><trkpt lat="44.142224497703154" lon="3.9429774770678296"><ele>653.0</ele><time>2026-04-03T09:34:16Z</time></trkpt><trkpt lat="44.14219189230218" lon="3.943073385565079"><ele>653.0</ele><time>2026-04-03T09:34:17Z</time></trkpt><trkpt lat="44.142164814536486" lon="3.9431734808148646"><ele>653.0</ele><time>2026-04-03T09:34:18Z</time></trkpt><trkpt lat="44.142148453316" lon="3.943268197154062"><ele>653.0</ele><time>2026-04-03T09:34:19Z</time></trkpt><trkpt lat="44.14212965706365" lon="3.943424594418062"><ele>653.0</ele><time>2026-04-03T09:34:21Z</time></trkpt><trkpt lat="44.142116102764255" lon="3.9435202588973053"><ele>653.0</ele><time>2026-04-03T09:34:22Z</time></trkpt><trkpt lat="44.142080846875416" lon="3.9436009270099617"><ele>653.0</ele><time>2026-04-03T09:34:23Z</time></trkpt><trkpt lat="44.14203493239209" lon="3.9437650136003533"><ele>650.75</ele><time>2026-04-03T09:34:25Z</time></trkpt><trkpt lat="44.14200137424714" lon="3.94385030726213"><ele>648.5</ele><time>2026-04-03T09:34:26Z</time></trkpt><trkpt lat="44.141865929065524" lon="3.9439194843132417"><ele>646.25</ele><time>2026-04-03T09:34:28Z</time></trkpt><trkpt lat="44.14182312625705" lon="3.9440447857102225"><ele>644.0</ele><time>2026-04-03T09:34:30Z</time></trkpt><trkpt lat="44.14207787057519" lon="3.9441437564298956"><ele>644.8333333333333</ele><time>2026-04-03T09:38:44.999Z</time></trkpt><trkpt lat="44.14211097407434" lon="3.9442594113384235"><ele>645.6666666666666</ele><time>2026-04-03T09:38:46.999Z</time></trkpt><trkpt lat="44.14216322568386" lon="3.9443665734570454"><ele>646.5</ele><time>2026-04-03T09:38:48.999Z</time></trkpt><trkpt lat="44.142219872783954" lon="3.9444644788569825"><ele>647.3333333333334</ele><time>2026-04-03T09:38:50.999Z</time></trkpt><trkpt lat="44.14227553589514" lon="3.9445644112197984"><ele>648.1666666666667</ele><time>2026-04-03T09:38:52.999Z</time></trkpt><trkpt lat="44.14230420711466" lon="3.9446707217613173"><ele>649.0</ele><time>2026-04-03T09:38:54.999Z</time></trkpt><trkpt lat="44.14231565123943" lon="3.9447705754508995"><ele>648.9999999999999</ele><time>2026-04-03T09:38:56.999Z</time></trkpt><trkpt lat="44.1423235919779" lon="3.944865223978471"><ele>649.0</ele><time>2026-04-03T09:38:59.999Z</time></trkpt><trkpt lat="44.142392708410206" lon="3.944895147904239"><ele>649.0</ele><time>2026-04-03T09:39:04.999Z</time></trkpt><trkpt lat="44.14242408112391" lon="3.9447989817243903"><ele>649.0</ele><time>2026-04-03T09:39:06.999Z</time></trkpt><trkpt lat="44.14245026116661" lon="3.944686907171004"><ele>649.0</ele><time>2026-04-03T09:39:08.999Z</time></trkpt><trkpt lat="44.1424682588579" lon="3.944587265290915"><ele>648.9999999999999</ele><time>2026-04-03T09:39:10.999Z</time></trkpt><trkpt lat="44.142476727482894" lon="3.9444897822291405"><ele>649.0</ele><time>2026-04-03T09:39:12.999Z</time></trkpt><trkpt lat="44.142532788641084" lon="3.9443498244294752"><ele>646.3333333333334</ele><time>2026-04-03T09:39:15.999Z</time></trkpt><trkpt lat="44.14255012907997" lon="3.944227812411926"><ele>643.6666666666667</ele><time>2026-04-03T09:39:17.999Z</time></trkpt><trkpt lat="44.142571867679905" lon="3.944112946148046"><ele>641.0</ele><time>2026-04-03T09:39:19.999Z</time></trkpt><trkpt lat="44.142590089194165" lon="3.9440200449896015"><ele>638.3333333333334</ele><time>2026-04-03T09:39:21.999Z</time></trkpt><trkpt lat="44.14263170635214" lon="3.9439036122840974"><ele>635.6666666666666</ele><time>2026-04-03T09:39:23.999Z</time></trkpt><trkpt lat="44.1426723745112" lon="3.943815363223792"><ele>633.0</ele><time>2026-04-03T09:39:24.999Z</time></trkpt><trkpt lat="44.142711453099906" lon="3.9437276634397946"><ele>633.0</ele><time>2026-04-03T09:39:27.999Z</time></trkpt><trkpt lat="44.142718300987816" lon="3.9436297295128875"><ele>633.0</ele><time>2026-04-03T09:39:31.999Z</time></trkpt><trkpt lat="44.14275160800282" lon="3.9435445613986086"><ele>633.0</ele><time>2026-04-03T09:39:34.999Z</time></trkpt><trkpt lat="44.14278797610012" lon="3.9434394654223506"><ele>633.0</ele><time>2026-04-03T09:39:37.999Z</time></trkpt><trkpt lat="44.142808586694976" lon="3.9433491204636852"><ele>633.0</ele><time>2026-04-03T09:39:39.999Z</time></trkpt><trkpt lat="44.14282914081891" lon="3.94325257796265"><ele>633.0</ele><time>2026-04-03T09:39:41.999Z</time></trkpt><trkpt lat="44.14286760420717" lon="3.943137807731858"><ele>634.0</ele><time>2026-04-03T09:39:44.999Z</time></trkpt><trkpt lat="44.142899406146405" lon="3.9430293768028766"><ele>635.0</ele><time>2026-04-03T09:39:47.999Z</time></trkpt><trkpt lat="44.142959229192925" lon="3.9429603926309627"><ele>636.0</ele><time>2026-04-03T09:39:58.999Z</time></trkpt><trkpt lat="44.14300641601186" lon="3.9428841072186476"><ele>637.0</ele><time>2026-04-03T09:40:01.999Z</time></trkpt><trkpt lat="44.143056073292186" lon="3.942794430541153"><ele>638.0</ele><time>2026-04-03T09:40:04.999Z</time></trkpt><trkpt lat="44.143115463266476" lon="3.9427274158588315"><ele>639.0</ele><time>2026-04-03T09:40:07.999Z</time></trkpt><trkpt lat="44.14316416953094" lon="3.9426566724077654"><ele>635.1428571428572</ele><time>2026-04-03T09:40:18.999Z</time></trkpt><trkpt lat="44.143221901857196" lon="3.94258209512831"><ele>631.2857142857143</ele><time>2026-04-03T09:40:21.999Z</time></trkpt><trkpt lat="44.143272999797944" lon="3.94251474313785"><ele>627.4285714285714</ele><time>2026-04-03T09:40:24.999Z</time></trkpt><trkpt lat="44.14333648474802" lon="3.9424492085936462"><ele>623.5714285714287</ele><time>2026-04-03T09:40:30.999Z</time></trkpt><trkpt lat="44.14338489295717" lon="3.942379594662694"><ele>619.7142857142858</ele><time>2026-04-03T09:40:34.999Z</time></trkpt><trkpt lat="44.143455853592776" lon="3.942325527737715"><ele>615.8571428571429</ele><time>2026-04-03T09:40:42.999Z</time></trkpt><trkpt lat="44.14350780801967" lon="3.942265387013641"><ele>612.0</ele><time>2026-04-03T09:40:54.999Z</time></trkpt><trkpt lat="44.14357676515245" lon="3.942224019242053"><ele>612.0</ele><time>2026-04-03T09:41:16.999Z</time></trkpt><trkpt lat="44.14364698874783" lon="3.942154870694181"><ele>612.0</ele><time>2026-04-03T09:41:19.999Z</time></trkpt><trkpt lat="44.14370654550786" lon="3.9420936536079623"><ele>612.0</ele><time>2026-04-03T09:41:21.999Z</time></trkpt><trkpt lat="44.143779087130696" lon="3.942045463172097"><ele>612.0</ele><time>2026-04-03T09:41:23.999Z</time></trkpt><trkpt lat="44.14387088384831" lon="3.941986722629069"><ele>612.0</ele><time>2026-04-03T09:41:25.999Z</time></trkpt><trkpt lat="44.143921173963946" lon="3.941918244485415"><ele>612.0</ele><time>2026-04-03T09:41:27.999Z</time></trkpt><trkpt lat="44.143970203738874" lon="3.9418625041947988"><ele>612.0</ele><time>2026-04-03T09:41:29.999Z</time></trkpt><trkpt lat="44.14401485678507" lon="3.941792351127879"><ele>612.0</ele><time>2026-04-03T09:41:41.999Z</time></trkpt><trkpt lat="44.144069292169256" lon="3.941726615927157"><ele>612.0</ele><time>2026-04-03T09:41:50.999Z</time></trkpt><trkpt lat="44.14412185523008" lon="3.941670104018702"><ele>612.0</ele><time>2026-04-03T09:41:53.999Z</time></trkpt><trkpt lat="44.144199404462036" lon="3.9415972736939717"><ele>612.0</ele><time>2026-04-03T09:41:56.999Z</time></trkpt><trkpt lat="44.14425469476803" lon="3.9415530447679963"><ele>612.0</ele><time>2026-04-03T09:41:59.999Z</time></trkpt><trkpt lat="44.144314127104415" lon="3.941509519044287"><ele>612.0</ele><time>2026-04-03T09:42:07.999Z</time></trkpt><trkpt lat="44.14437349830023" lon="3.9414615880838824"><ele>609.5714285714286</ele><time>2026-04-03T09:42:10.999Z</time></trkpt><trkpt lat="44.144434904975405" lon="3.9414077416670548"><ele>607.1428571428571</ele><time>2026-04-03T09:42:14.999Z</time></trkpt><trkpt lat="44.1445063511127" lon="3.9413491628897774"><ele>604.7142857142858</ele><time>2026-04-03T09:42:18.999Z</time></trkpt><trkpt lat="44.144567213588914" lon="3.9412936537666523"><ele>602.2857142857142</ele><time>2026-04-03T09:42:21.999Z</time></trkpt><trkpt lat="44.14463821623124" lon="3.9412425465224157"><ele>599.8571428571429</ele><time>2026-04-03T09:42:31.999Z</time></trkpt><trkpt lat="44.14470486264761" lon="3.9411984324492835"><ele>597.4285714285714</ele><time>2026-04-03T09:42:35.999Z</time></trkpt><trkpt lat="44.144769559002164" lon="3.9411814077729717"><ele>595.0</ele><time>2026-04-03T09:42:39.999Z</time></trkpt><trkpt lat="44.144841034234595" lon="3.9411766919682627"><ele>590.2857142857143</ele><time>2026-04-03T09:42:50.999Z</time></trkpt><trkpt lat="44.144906337733815" lon="3.9411792843322444"><ele>585.5714285714286</ele><time>2026-04-03T09:43:05.999Z</time></trkpt><trkpt lat="44.14497959216258" lon="3.9412031833297045"><ele>580.8571428571429</ele><time>2026-04-03T09:43:09.999Z</time></trkpt><trkpt lat="44.14505634711929" lon="3.9412279387256937"><ele>576.1428571428571</ele><time>2026-04-03T09:43:12.999Z</time></trkpt><trkpt lat="44.14512152497324" lon="3.9412440554478017"><ele>571.4285714285714</ele><time>2026-04-03T09:43:15.999Z</time></trkpt><trkpt lat="44.14519697995189" lon="3.9412948333028277"><ele>566.7142857142858</ele><time>2026-04-03T09:43:18.999Z</time></trkpt><trkpt lat="44.14525471407292" lon="3.9413340501719536"><ele>562.0</ele><time>2026-04-03T09:43:20.999Z</time></trkpt><trkpt lat="44.14531850407141" lon="3.941364585316102"><ele>562.0</ele><time>2026-04-03T09:43:22.999Z</time></trkpt><trkpt lat="44.14539994085054" lon="3.9414187610967697"><ele>562.0</ele><time>2026-04-03T09:43:24.999Z</time></trkpt><trkpt lat="44.145458595635795" lon="3.941380832766907"><ele>562.0</ele><time>2026-04-03T09:43:26.999Z</time></trkpt><trkpt lat="44.14551826193635" lon="3.9413470068220664"><ele>562.0</ele><time>2026-04-03T09:43:28.999Z</time></trkpt><trkpt lat="44.14560501047665" lon="3.9413113983037085"><ele>562.0</ele><time>2026-04-03T09:43:33.999Z</time></trkpt><trkpt lat="44.145660583290415" lon="3.9412187608186713"><ele>562.0</ele><time>2026-04-03T09:43:35.999Z</time></trkpt><trkpt lat="44.14571103753687" lon="3.941148455499594"><ele>561.8333333333334</ele><time>2026-04-03T09:43:37.999Z</time></trkpt><trkpt lat="44.14576329452007" lon="3.941053994102738"><ele>561.6666666666667</ele><time>2026-04-03T09:43:39.999Z</time></trkpt><trkpt lat="44.145812589601924" lon="3.9409880041365386"><ele>561.5</ele><time>2026-04-03T09:43:41.999Z</time></trkpt><trkpt lat="44.14584770673717" lon="3.9409032921345224"><ele>561.3333333333334</ele><time>2026-04-03T09:43:43.999Z</time></trkpt><trkpt lat="44.14591969905374" lon="3.940834661381848"><ele>561.1666666666666</ele><time>2026-04-03T09:43:53.999Z</time></trkpt><trkpt lat="44.14597160658813" lon="3.940745450950994"><ele>561.0</ele><time>2026-04-03T09:43:56.999Z</time></trkpt><trkpt lat="44.14602199866705" lon="3.9406747644284685"><ele>561.0</ele><time>2026-04-03T09:43:59.999Z</time></trkpt><trkpt lat="44.146063421262575" lon="3.9406026695612555"><ele>561.0</ele><time>2026-04-03T09:44:02.999Z</time></trkpt><trkpt lat="44.1460637101708" lon="3.9405068263376752"><ele>561.0</ele><time>2026-04-03T09:44:05.999Z</time></trkpt><trkpt lat="44.14612177098506" lon="3.940450267336095"><ele>561.0</ele><time>2026-04-03T09:44:07.999Z</time></trkpt><trkpt lat="44.14618394989885" lon="3.9404147054180165"><ele>561.0</ele><time>2026-04-03T09:45:12.999Z</time></trkpt><trkpt lat="44.146225957066" lon="3.9403493270443204"><ele>561.0</ele><time>2026-04-03T09:45:19.999Z</time></trkpt><trkpt lat="44.14627300508564" lon="3.940238595439869"><ele>561.0</ele><time>2026-04-03T09:45:23.999Z</time></trkpt><trkpt lat="44.14631405747246" lon="3.940145579151453"><ele>561.0</ele><time>2026-04-03T09:45:27.999Z</time></trkpt><trkpt lat="44.14634930197661" lon="3.940055134098336"><ele>561.0</ele><time>2026-04-03T09:45:30.999Z</time></trkpt><trkpt lat="44.14637095396399" lon="3.9399580588137946"><ele>561.0</ele><time>2026-04-03T09:45:54.999Z</time></trkpt><trkpt lat="44.14642041202404" lon="3.939898084984606"><ele>561.0</ele><time>2026-04-03T09:47:01.999Z</time></trkpt><trkpt lat="44.14646882591392" lon="3.9398239112148588"><ele>561.0</ele><time>2026-04-03T09:47:04.999Z</time></trkpt><trkpt lat="44.146516110821175" lon="3.9397381958833355"><ele>561.0</ele><time>2026-04-03T09:47:07.999Z</time></trkpt><trkpt lat="44.14657088598697" lon="3.9396576482437746"><ele>561.0</ele><time>2026-04-03T09:47:10.999Z</time></trkpt><trkpt lat="44.14664342063758" lon="3.9396184327137265"><ele>556.3333333333334</ele><time>2026-04-03T09:47:13.999Z</time></trkpt><trkpt lat="44.14670909865457" lon="3.939623986291319"><ele>551.6666666666666</ele><time>2026-04-03T09:47:15.999Z</time></trkpt><trkpt lat="44.14677245975417" lon="3.9396516987383188"><ele>547.0</ele><time>2026-04-03T09:47:17.999Z</time></trkpt><trkpt lat="44.14684702565301" lon="3.9396804005906234"><ele>542.3333333333333</ele><time>2026-04-03T09:47:19.999Z</time></trkpt><trkpt lat="44.146910496514685" lon="3.9396601582213675"><ele>537.6666666666666</ele><time>2026-04-03T09:47:21.999Z</time></trkpt><trkpt lat="44.14700554788702" lon="3.939667248256967"><ele>533.0</ele><time>2026-04-03T09:47:23.999Z</time></trkpt><trkpt lat="44.14709748474277" lon="3.9396742339205413"><ele>533.0</ele><time>2026-04-03T09:47:25.999Z</time></trkpt><trkpt lat="44.14719059265833" lon="3.939642282068725"><ele>533.0</ele><time>2026-04-03T09:47:27.999Z</time></trkpt><trkpt lat="44.14726513317991" lon="3.9395978209414446"><ele>533.0</ele><time>2026-04-03T09:47:29.999Z</time></trkpt><trkpt lat="44.14734109632947" lon="3.939560568226785"><ele>533.0</ele><time>2026-04-03T09:47:31.999Z</time></trkpt><trkpt lat="44.147421735374344" lon="3.9395312111072"><ele>533.0</ele><time>2026-04-03T09:47:33.999Z</time></trkpt><trkpt lat="44.147482649647266" lon="3.939502765653201"><ele>533.0</ele><time>2026-04-03T09:47:35.999Z</time></trkpt><trkpt lat="44.1475449701631" lon="3.93947155384266"><ele>532.0</ele><time>2026-04-03T09:47:37.999Z</time></trkpt><trkpt lat="44.14763975862418" lon="3.9394372529395327"><ele>531.0</ele><time>2026-04-03T09:47:40.999Z</time></trkpt><trkpt lat="44.1477123801141" lon="3.939381567373761"><ele>530.0</ele><time>2026-04-03T09:47:42.999Z</time></trkpt><trkpt lat="44.14778257233322" lon="3.939309429099169"><ele>529.0</ele><time>2026-04-03T09:47:44.999Z</time></trkpt><trkpt lat="44.147849687712444" lon="3.9392203803018258"><ele>528.0</ele><time>2026-04-03T09:47:46.999Z</time></trkpt><trkpt lat="44.147878931264856" lon="3.9390995034822325"><ele>528.0</ele><time>2026-04-03T09:47:48.999Z</time></trkpt><trkpt lat="44.147883901795986" lon="3.939002352530039"><ele>528.0</ele><time>2026-04-03T09:47:50.999Z</time></trkpt><trkpt lat="44.14789433834717" lon="3.9388706621219"><ele>528.0</ele><time>2026-04-03T09:47:52.999Z</time></trkpt><trkpt lat="44.14790606244804" lon="3.9387301925448037"><ele>528.0</ele><time>2026-04-03T09:47:54.999Z</time></trkpt><trkpt lat="44.14791586889955" lon="3.9386257244480087"><ele>528.0</ele><time>2026-04-03T09:47:56.999Z</time></trkpt><trkpt lat="44.14793448712743" lon="3.9385025782110255"><ele>528.0</ele><time>2026-04-03T09:47:58.999Z</time></trkpt><trkpt lat="44.14796151700929" lon="3.938389749955667"><ele>529.0</ele><time>2026-04-03T09:48:00.999Z</time></trkpt><trkpt lat="44.14796449125248" lon="3.93828006771187"><ele>530.0</ele><time>2026-04-03T09:48:02.999Z</time></trkpt><trkpt lat="44.147952561941565" lon="3.938155807654225"><ele>531.0</ele><time>2026-04-03T09:48:04.999Z</time></trkpt><trkpt lat="44.147950797292566" lon="3.938064253664816"><ele>532.0</ele><time>2026-04-03T09:48:06.999Z</time></trkpt><trkpt lat="44.14794747904642" lon="3.9379654831947226"><ele>533.0</ele><time>2026-04-03T09:48:08.999Z</time></trkpt><trkpt lat="44.147954476472925" lon="3.9378631697607243"><ele>534.0</ele><time>2026-04-03T09:48:10.999Z</time></trkpt><trkpt lat="44.14794772926909" lon="3.9377608607912324"><ele>534.0</ele><time>2026-04-03T09:48:12.999Z</time></trkpt><trkpt lat="44.14793720253646" lon="3.9376564885142944"><ele>534.0</ele><time>2026-04-03T09:48:14.999Z</time></trkpt><trkpt lat="44.14799447283893" lon="3.9374221558610234"><ele>534.0</ele><time>2026-04-03T09:48:16.999Z</time></trkpt><trkpt lat="44.14793815078047" lon="3.937307158545774"><ele>534.0</ele><time>2026-04-03T09:48:18.999Z</time></trkpt><trkpt lat="44.147891737938146" lon="3.937212393761544"><ele>534.0</ele><time>2026-04-03T09:48:20.999Z</time></trkpt><trkpt lat="44.14784314368917" lon="3.937119314895723"><ele>532.0</ele><time>2026-04-03T09:48:22.999Z</time></trkpt><trkpt lat="44.14780554116145" lon="3.937045053820045"><ele>530.0</ele><time>2026-04-03T09:48:24.999Z</time></trkpt><trkpt lat="44.14776782683055" lon="3.936967170661816"><ele>528.0</ele><time>2026-04-03T09:48:26.999Z</time></trkpt><trkpt lat="44.14771906602003" lon="3.9368660747213227"><ele>526.0</ele><time>2026-04-03T09:48:29.999Z</time></trkpt><trkpt lat="44.14778626275957" lon="3.9370358171532867"><ele>524.0</ele><time>2026-04-03T09:48:42.999Z</time></trkpt><trkpt lat="44.14783023431598" lon="3.9371358788015334"><ele>522.0</ele><time>2026-04-03T09:48:43.999Z</time></trkpt><trkpt lat="44.147869681848725" lon="3.937215273030029"><ele>522.0</ele><time>2026-04-03T09:48:44.999Z</time></trkpt><trkpt lat="44.14792413317863" lon="3.9373607573669216"><ele>522.0</ele><time>2026-04-03T09:48:46.999Z</time></trkpt><trkpt lat="44.147971880413806" lon="3.9374518960631337"><ele>522.0</ele><time>2026-04-03T09:48:48.999Z</time></trkpt><trkpt lat="44.14803791620805" lon="3.9375294018095834"><ele>522.0</ele><time>2026-04-03T09:48:50.999Z</time></trkpt><trkpt lat="44.14806916863592" lon="3.9376301323293474"><ele>522.0</ele><time>2026-04-03T09:48:51.999Z</time></trkpt><trkpt lat="44.14811296351536" lon="3.9377169830048127"><ele>522.0</ele><time>2026-04-03T09:48:52.999Z</time></trkpt><trkpt lat="44.14816169606501" lon="3.937805852052094"><ele>524.4</ele><time>2026-04-03T09:48:53.999Z</time></trkpt><trkpt lat="44.148205675862556" lon="3.937907893724096"><ele>526.8000000000001</ele><time>2026-04-03T09:48:54.999Z</time></trkpt><trkpt lat="44.148245293972984" lon="3.9380254623923423"><ele>529.2</ele><time>2026-04-03T09:48:55.999Z</time></trkpt><trkpt lat="44.1482736631884" lon="3.938164967105046"><ele>531.6</ele><time>2026-04-03T09:48:56.999Z</time></trkpt><trkpt lat="44.14829358225131" lon="3.93832429635239"><ele>534.0</ele><time>2026-04-03T09:48:57.999Z</time></trkpt><trkpt lat="44.1483163430181" lon="3.938498908090253"><ele>523.75</ele><time>2026-04-03T09:48:58.999Z</time></trkpt><trkpt lat="44.14833823415669" lon="3.9386764547062807"><ele>513.5</ele><time>2026-04-03T09:48:59.999Z</time></trkpt><trkpt lat="44.1483608163677" lon="3.938864220606802"><ele>503.25</ele><time>2026-04-03T09:49:00.999Z</time></trkpt><trkpt lat="44.14837807009959" lon="3.9390454598232463"><ele>493.0</ele><time>2026-04-03T09:49:01.999Z</time></trkpt><trkpt lat="44.14840084452682" lon="3.9392082327597473"><ele>490.59999999999997</ele><time>2026-04-03T09:49:02.999Z</time></trkpt><trkpt lat="44.14841320962209" lon="3.9393611014858565"><ele>488.19999999999993</ele><time>2026-04-03T09:49:03.999Z</time></trkpt><trkpt lat="44.148407109068295" lon="3.939505420835082"><ele>485.8</ele><time>2026-04-03T09:49:04.999Z</time></trkpt><trkpt lat="44.148380997939505" lon="3.9396423533297504"><ele>483.4</ele><time>2026-04-03T09:49:05.999Z</time></trkpt><trkpt lat="44.14832620630023" lon="3.9397772800875948"><ele>481.0</ele><time>2026-04-03T09:49:06.999Z</time></trkpt><trkpt lat="44.148267406611915" lon="3.939931443694862"><ele>478.5</ele><time>2026-04-03T09:49:07.999Z</time></trkpt><trkpt lat="44.14814958431644" lon="3.940007506331513"><ele>476.0</ele><time>2026-04-03T09:49:08.999Z</time></trkpt><trkpt lat="44.14803111581081" lon="3.940085855779954"><ele>473.5</ele><time>2026-04-03T09:49:09.999Z</time></trkpt><trkpt lat="44.14790183222298" lon="3.9401716891593974"><ele>471.0</ele><time>2026-04-03T09:49:10.999Z</time></trkpt><trkpt lat="44.147765068620224" lon="3.9402434914504494"><ele>471.0</ele><time>2026-04-03T09:49:11.999Z</time></trkpt><trkpt lat="44.14763363334771" lon="3.940322546362028"><ele>471.0</ele><time>2026-04-03T09:49:12.999Z</time></trkpt><trkpt lat="44.14751065536426" lon="3.940384089974"><ele>471.0</ele><time>2026-04-03T09:49:13.999Z</time></trkpt><trkpt lat="44.147393833286486" lon="3.9404433498552347"><ele>471.0</ele><time>2026-04-03T09:49:14.999Z</time></trkpt><trkpt lat="44.14728389281115" lon="3.9405034839411415"><ele>476.0</ele><time>2026-04-03T09:49:15.999Z</time></trkpt><trkpt lat="44.14718332794401" lon="3.9405755920377596"><ele>481.0</ele><time>2026-04-03T09:49:16.999Z</time></trkpt><trkpt lat="44.14710748059329" lon="3.9406874600840354"><ele>486.0</ele><time>2026-04-03T09:49:17.999Z</time></trkpt><trkpt lat="44.14705781026277" lon="3.9408439132961566"><ele>491.0</ele><time>2026-04-03T09:49:18.999Z</time></trkpt><trkpt lat="44.14702714402749" lon="3.941024953478133"><ele>491.0</ele><time>2026-04-03T09:49:19.999Z</time></trkpt><trkpt lat="44.14696087923837" lon="3.941206567596415"><ele>491.0</ele><time>2026-04-03T09:49:20.999Z</time></trkpt><trkpt lat="44.14687414234104" lon="3.9413800280755327"><ele>491.0</ele><time>2026-04-03T09:49:21.999Z</time></trkpt><trkpt lat="44.14680591755604" lon="3.9415698936564207"><ele>489.0</ele><time>2026-04-03T09:49:22.999Z</time></trkpt><trkpt lat="44.14675681328564" lon="3.9417539765990623"><ele>487.0</ele><time>2026-04-03T09:49:23.999Z</time></trkpt><trkpt lat="44.146746596460765" lon="3.9419448880783974"><ele>485.0</ele><time>2026-04-03T09:49:24.999Z</time></trkpt><trkpt lat="44.14675879601411" lon="3.9421385747253623"><ele>483.0</ele><time>2026-04-03T09:49:25.999Z</time></trkpt><trkpt lat="44.14675796080778" lon="3.9423420730180125"><ele>483.0</ele><time>2026-04-03T09:49:26.999Z</time></trkpt><trkpt lat="44.146763642100126" lon="3.942535007118573"><ele>483.0</ele><time>2026-04-03T09:49:27.999Z</time></trkpt><trkpt lat="44.14678314879832" lon="3.9427141013195843"><ele>483.0</ele><time>2026-04-03T09:49:28.999Z</time></trkpt><trkpt lat="44.146774721297184" lon="3.9428827155918347"><ele>483.0</ele><time>2026-04-03T09:49:29.999Z</time></trkpt><trkpt lat="44.14674580209299" lon="3.9430444278319383"><ele>482.5</ele><time>2026-04-03T09:49:30.999Z</time></trkpt><trkpt lat="44.14666854009463" lon="3.9431644298319544"><ele>482.0</ele><time>2026-04-03T09:49:31.999Z</time></trkpt><trkpt lat="44.14659671706404" lon="3.943263294978551"><ele>481.5</ele><time>2026-04-03T09:49:32.999Z</time></trkpt><trkpt lat="44.14652684195968" lon="3.9433217240902034"><ele>481.0</ele><time>2026-04-03T09:49:33.999Z</time></trkpt><trkpt lat="44.146373507545256" lon="3.943319261968391"><ele>481.0</ele><time>2026-04-03T09:49:35.999Z</time></trkpt><trkpt lat="44.14624711816217" lon="3.9432940766412927"><ele>481.0</ele><time>2026-04-03T09:49:36.999Z</time></trkpt><trkpt lat="44.1461248057697" lon="3.943288981308658"><ele>481.0</ele><time>2026-04-03T09:49:37.999Z</time></trkpt><trkpt lat="44.146001485437566" lon="3.9433714914999665"><ele>481.0</ele><time>2026-04-03T09:49:38.999Z</time></trkpt><trkpt lat="44.145882953239216" lon="3.943469551441562"><ele>481.8</ele><time>2026-04-03T09:49:39.999Z</time></trkpt><trkpt lat="44.14576646392652" lon="3.9435145354501047"><ele>482.6</ele><time>2026-04-03T09:49:40.999Z</time></trkpt><trkpt lat="44.14566897026886" lon="3.9435247320264355"><ele>483.4</ele><time>2026-04-03T09:49:41.999Z</time></trkpt><trkpt lat="44.14558631463884" lon="3.9434772033865175"><ele>484.2</ele><time>2026-04-03T09:49:42.999Z</time></trkpt><trkpt lat="44.14548805916336" lon="3.94343843073767"><ele>485.0</ele><time>2026-04-03T09:49:43.999Z</time></trkpt><trkpt lat="44.14539223351433" lon="3.943423618047732"><ele>485.0</ele><time>2026-04-03T09:49:44.999Z</time></trkpt><trkpt lat="44.145304107575036" lon="3.943496482474934"><ele>485.0</ele><time>2026-04-03T09:49:45.999Z</time></trkpt><trkpt lat="44.14524757792355" lon="3.9436317456260435"><ele>485.0</ele><time>2026-04-03T09:49:46.999Z</time></trkpt><trkpt lat="44.14520236744374" lon="3.9437697762472332"><ele>485.0</ele><time>2026-04-03T09:49:47.999Z</time></trkpt><trkpt lat="44.1451234326023" lon="3.9438781364677356"><ele>485.0</ele><time>2026-04-03T09:49:48.999Z</time></trkpt><trkpt lat="44.14506261165298" lon="3.944014234040572"><ele>485.0</ele><time>2026-04-03T09:49:49.999Z</time></trkpt><trkpt lat="44.145013976741005" lon="3.9441650521298004"><ele>485.0</ele><time>2026-04-03T09:49:50.999Z</time></trkpt><trkpt lat="44.14502392367232" lon="3.9443349072868124"><ele>485.0</ele><time>2026-04-03T09:49:51.999Z</time></trkpt><trkpt lat="44.145085989724784" lon="3.9445012013063407"><ele>485.0</ele><time>2026-04-03T09:49:52.999Z</time></trkpt><trkpt lat="44.14511945851683" lon="3.9446593368770304"><ele>484.25</ele><time>2026-04-03T09:49:53.999Z</time></trkpt><trkpt lat="44.145159438874444" lon="3.9448273266404237"><ele>483.5</ele><time>2026-04-03T09:49:54.999Z</time></trkpt><trkpt lat="44.14519759128859" lon="3.9449960850419545"><ele>482.75</ele><time>2026-04-03T09:49:55.999Z</time></trkpt><trkpt lat="44.14523553347549" lon="3.9451632398625684"><ele>482.0</ele><time>2026-04-03T09:49:56.999Z</time></trkpt><trkpt lat="44.145270446836406" lon="3.9453183417573916"><ele>481.0</ele><time>2026-04-03T09:49:57.999Z</time></trkpt><trkpt lat="44.145284549300506" lon="3.945467980078512"><ele>480.00000000000006</ele><time>2026-04-03T09:49:58.999Z</time></trkpt><trkpt lat="44.145268706591565" lon="3.9456075838142235"><ele>479.00000000000006</ele><time>2026-04-03T09:49:59.999Z</time></trkpt><trkpt lat="44.145214323799706" lon="3.945716561334466"><ele>478.0</ele><time>2026-04-03T09:50:00.999Z</time></trkpt><trkpt lat="44.14513727054103" lon="3.945807640531182"><ele>477.0</ele><time>2026-04-03T09:50:01.999Z</time></trkpt><trkpt lat="44.145044741772004" lon="3.9459331327720593"><ele>473.0</ele><time>2026-04-03T09:50:02.999Z</time></trkpt><trkpt lat="44.144972474968895" lon="3.9460894157528"><ele>469.0</ele><time>2026-04-03T09:50:03.999Z</time></trkpt><trkpt lat="44.144920368872945" lon="3.9462661052032493"><ele>465.0</ele><time>2026-04-03T09:50:04.999Z</time></trkpt><trkpt lat="44.14487527491521" lon="3.9464200159514315"><ele>461.0</ele><time>2026-04-03T09:50:05.999Z</time></trkpt><trkpt lat="44.14480033456209" lon="3.94651891587488"><ele>469.8</ele><time>2026-04-03T09:50:06.999Z</time></trkpt><trkpt lat="44.14472140032158" lon="3.946619322610748"><ele>478.6</ele><time>2026-04-03T09:50:07.999Z</time></trkpt><trkpt lat="44.14466431585042" lon="3.9467355684338954"><ele>487.4</ele><time>2026-04-03T09:50:08.999Z</time></trkpt><trkpt lat="44.14461686601244" lon="3.946837677253752"><ele>496.2</ele><time>2026-04-03T09:50:09.999Z</time></trkpt><trkpt lat="44.14460521817907" lon="3.9469760197512147"><ele>505.0</ele><time>2026-04-03T09:50:10.999Z</time></trkpt><trkpt lat="44.14465051091905" lon="3.947123235040699"><ele>505.0</ele><time>2026-04-03T09:50:11.999Z</time></trkpt><trkpt lat="44.14472466017419" lon="3.947250904450445"><ele>505.0</ele><time>2026-04-03T09:50:12.999Z</time></trkpt><trkpt lat="44.14479012873745" lon="3.947389634139483"><ele>505.0</ele><time>2026-04-03T09:50:13.999Z</time></trkpt><trkpt lat="44.144852795918084" lon="3.9475288284068624"><ele>505.0</ele><time>2026-04-03T09:50:14.999Z</time></trkpt><trkpt lat="44.14491830171301" lon="3.9476687177597496"><ele>495.75</ele><time>2026-04-03T09:50:15.999Z</time></trkpt><trkpt lat="44.14498758286879" lon="3.947810271852112"><ele>486.5</ele><time>2026-04-03T09:50:16.999Z</time></trkpt><trkpt lat="44.14505761773306" lon="3.947955416573268"><ele>477.25</ele><time>2026-04-03T09:50:17.999Z</time></trkpt><trkpt lat="44.145118476948056" lon="3.948104010920148"><ele>468.0</ele><time>2026-04-03T09:50:18.999Z</time></trkpt><trkpt lat="44.14517231287684" lon="3.948263961429353"><ele>464.2</ele><time>2026-04-03T09:50:19.999Z</time></trkpt><trkpt lat="44.145206306858256" lon="3.948428091362307"><ele>460.4</ele><time>2026-04-03T09:50:20.999Z</time></trkpt><trkpt lat="44.14521387741556" lon="3.9485754541393927"><ele>456.59999999999997</ele><time>2026-04-03T09:50:21.999Z</time></trkpt><trkpt lat="44.145203721330354" lon="3.9486804677316347"><ele>452.79999999999995</ele><time>2026-04-03T09:50:22.999Z</time></trkpt><trkpt lat="44.14515849027417" lon="3.9487519768531887"><ele>449.0</ele><time>2026-04-03T09:50:23.999Z</time></trkpt><trkpt lat="44.145077484299264" lon="3.9487961694245186"><ele>449.0</ele><time>2026-04-03T09:50:24.999Z</time></trkpt><trkpt lat="44.144978777610156" lon="3.948853510430853"><ele>449.0</ele><time>2026-04-03T09:50:25.999Z</time></trkpt><trkpt lat="44.144860903910825" lon="3.9489287249150493"><ele>449.0</ele><time>2026-04-03T09:50:26.999Z</time></trkpt><trkpt lat="44.14474932251022" lon="3.9490195964102215"><ele>449.0</ele><time>2026-04-03T09:50:27.999Z</time></trkpt><trkpt lat="44.14463036239805" lon="3.9490908142635135"><ele>455.75</ele><time>2026-04-03T09:50:28.999Z</time></trkpt><trkpt lat="44.14451315213651" lon="3.9491663903198595"><ele>462.5</ele><time>2026-04-03T09:50:29.999Z</time></trkpt><trkpt lat="44.14440501398156" lon="3.9492567384595865"><ele>469.25</ele><time>2026-04-03T09:50:30.999Z</time></trkpt><trkpt lat="44.144332170920826" lon="3.9493871907679416"><ele>476.0</ele><time>2026-04-03T09:50:31.999Z</time></trkpt><trkpt lat="44.14430396052439" lon="3.9495368324400126"><ele>476.0</ele><time>2026-04-03T09:50:32.999Z</time></trkpt><trkpt lat="44.144301280930364" lon="3.9496850035065534"><ele>476.0</ele><time>2026-04-03T09:50:33.999Z</time></trkpt><trkpt lat="44.144331869252945" lon="3.9498246870405045"><ele>476.0</ele><time>2026-04-03T09:50:34.999Z</time></trkpt><trkpt lat="44.14439241500975" lon="3.949948986351099"><ele>476.0</ele><time>2026-04-03T09:50:35.999Z</time></trkpt><trkpt lat="44.14446040941792" lon="3.9500915463312403"><ele>476.0</ele><time>2026-04-03T09:50:36.999Z</time></trkpt><trkpt lat="44.14452672287049" lon="3.950252704478641"><ele>477.0</ele><time>2026-04-03T09:50:37.999Z</time></trkpt><trkpt lat="44.144588540576116" lon="3.950429039643478"><ele>478.0</ele><time>2026-04-03T09:50:38.999Z</time></trkpt><trkpt lat="44.1446256371884" lon="3.9506076945845376"><ele>479.0</ele><time>2026-04-03T09:50:39.999Z</time></trkpt><trkpt lat="44.144669473455174" lon="3.950791711209536"><ele>480.0</ele><time>2026-04-03T09:50:40.999Z</time></trkpt><trkpt lat="44.14471334986933" lon="3.9510004396834706"><ele>480.0</ele><time>2026-04-03T09:50:41.999Z</time></trkpt><trkpt lat="44.144747436057635" lon="3.951219636764043"><ele>480.0</ele><time>2026-04-03T09:50:42.999Z</time></trkpt><trkpt lat="44.14477695426921" lon="3.9514232489514782"><ele>480.0</ele><time>2026-04-03T09:50:43.999Z</time></trkpt><trkpt lat="44.14479534030138" lon="3.951592478310626"><ele>480.0</ele><time>2026-04-03T09:50:44.999Z</time></trkpt><trkpt lat="44.14479665179298" lon="3.9517397806977543"><ele>478.4</ele><time>2026-04-03T09:50:45.999Z</time></trkpt><trkpt lat="44.14476639598305" lon="3.9518589941183007"><ele>476.8</ele><time>2026-04-03T09:50:46.999Z</time></trkpt><trkpt lat="44.14469882345815" lon="3.9519308734274903"><ele>475.20000000000005</ele><time>2026-04-03T09:50:47.999Z</time></trkpt><trkpt lat="44.14461633780326" lon="3.952024711087679"><ele>473.6</ele><time>2026-04-03T09:50:48.999Z</time></trkpt><trkpt lat="44.144524968990126" lon="3.9521450305869323"><ele>472.0</ele><time>2026-04-03T09:50:49.999Z</time></trkpt><trkpt lat="44.144448261563866" lon="3.9522858928471036"><ele>472.0</ele><time>2026-04-03T09:50:50.999Z</time></trkpt><trkpt lat="44.144390106367155" lon="3.952435150190981"><ele>472.0</ele><time>2026-04-03T09:50:51.999Z</time></trkpt><trkpt lat="44.14438948249695" lon="3.9526060263655363"><ele>472.0</ele><time>2026-04-03T09:50:52.999Z</time></trkpt><trkpt lat="44.144407558430835" lon="3.952798144146727"><ele>472.0</ele><time>2026-04-03T09:50:53.999Z</time></trkpt><trkpt lat="44.14440241610476" lon="3.952974333460102"><ele>472.0</ele><time>2026-04-03T09:50:54.999Z</time></trkpt><trkpt lat="44.14441219911148" lon="3.9531342295226928"><ele>472.00000000000006</ele><time>2026-04-03T09:50:55.999Z</time></trkpt><trkpt lat="44.144420409352065" lon="3.953278387886912"><ele>472.00000000000006</ele><time>2026-04-03T09:50:56.999Z</time></trkpt><trkpt lat="44.14442544606513" lon="3.9534200319662474"><ele>472.0</ele><time>2026-04-03T09:50:57.999Z</time></trkpt><trkpt lat="44.14442747957503" lon="3.953555405696119"><ele>472.0</ele><time>2026-04-03T09:50:58.999Z</time></trkpt><trkpt lat="44.1444459719464" lon="3.9537143914372153"><ele>472.0</ele><time>2026-04-03T09:50:59.999Z</time></trkpt><trkpt lat="44.144449996122376" lon="3.953896291099496"><ele>472.0</ele><time>2026-04-03T09:51:00.999Z</time></trkpt><trkpt lat="44.14446460044665" lon="3.9540856376490265"><ele>472.0</ele><time>2026-04-03T09:51:01.999Z</time></trkpt><trkpt lat="44.14447895312933" lon="3.9542460107295483"><ele>472.0</ele><time>2026-04-03T09:51:02.999Z</time></trkpt><trkpt lat="44.14452104210879" lon="3.954392751746925"><ele>471.25</ele><time>2026-04-03T09:51:03.999Z</time></trkpt><trkpt lat="44.14460822895193" lon="3.954489380793038"><ele>470.5</ele><time>2026-04-03T09:51:04.999Z</time></trkpt><trkpt lat="44.14472310081578" lon="3.954527038453188"><ele>469.75</ele><time>2026-04-03T09:51:05.999Z</time></trkpt><trkpt lat="44.14485369094942" lon="3.9545424363729738"><ele>469.0</ele><time>2026-04-03T09:51:06.999Z</time></trkpt><trkpt lat="44.144993429997385" lon="3.9545678670676963"><ele>469.0</ele><time>2026-04-03T09:51:07.999Z</time></trkpt><trkpt lat="44.145113320347704" lon="3.9545916793857816"><ele>469.0</ele><time>2026-04-03T09:51:08.999Z</time></trkpt><trkpt lat="44.14522290370194" lon="3.954632394493608"><ele>469.0</ele><time>2026-04-03T09:51:09.999Z</time></trkpt><trkpt lat="44.14530952943171" lon="3.9547056565979264"><ele>469.0</ele><time>2026-04-03T09:51:10.999Z</time></trkpt><trkpt lat="44.145391810114596" lon="3.954788272747378"><ele>469.0</ele><time>2026-04-03T09:51:11.999Z</time></trkpt><trkpt lat="44.14547929448762" lon="3.954875594139626"><ele>469.0</ele><time>2026-04-03T09:51:12.999Z</time></trkpt><trkpt lat="44.14557169837681" lon="3.954973445175277"><ele>469.0</ele><time>2026-04-03T09:51:13.999Z</time></trkpt><trkpt lat="44.14569636436076" lon="3.955014268919329"><ele>469.0</ele><time>2026-04-03T09:51:14.999Z</time></trkpt><trkpt lat="44.14583620822485" lon="3.955015726490215"><ele>469.0</ele><time>2026-04-03T09:51:15.999Z</time></trkpt><trkpt lat="44.145982030994624" lon="3.9550197953918858"><ele>472.0</ele><time>2026-04-03T09:51:16.999Z</time></trkpt><trkpt lat="44.1461317231508" lon="3.9550395176174344"><ele>475.0</ele><time>2026-04-03T09:51:17.999Z</time></trkpt><trkpt lat="44.14628606495837" lon="3.955064662933613"><ele>478.0</ele><time>2026-04-03T09:51:18.999Z</time></trkpt><trkpt lat="44.14643035380562" lon="3.9550939473979243"><ele>471.25</ele><time>2026-04-03T09:51:19.999Z</time></trkpt><trkpt lat="44.14657057861138" lon="3.9551249324518767"><ele>464.5</ele><time>2026-04-03T09:51:20.999Z</time></trkpt><trkpt lat="44.1466947410517" lon="3.955163492501797"><ele>457.75</ele><time>2026-04-03T09:51:21.999Z</time></trkpt><trkpt lat="44.1468059636503" lon="3.9552267238171246"><ele>451.0</ele><time>2026-04-03T09:51:22.999Z</time></trkpt><trkpt lat="44.14690148714827" lon="3.955312109757584"><ele>451.0</ele><time>2026-04-03T09:51:23.999Z</time></trkpt><trkpt lat="44.14698199454479" lon="3.955418347276835"><ele>451.0</ele><time>2026-04-03T09:51:24.999Z</time></trkpt><trkpt lat="44.147028382259755" lon="3.9555685870304274"><ele>451.0</ele><time>2026-04-03T09:51:25.999Z</time></trkpt><trkpt lat="44.14705852463542" lon="3.9557264966970487"><ele>451.0</ele><time>2026-04-03T09:51:26.999Z</time></trkpt><trkpt lat="44.14707351505297" lon="3.9558959706387897"><ele>450.75</ele><time>2026-04-03T09:51:27.999Z</time></trkpt><trkpt lat="44.14702183299434" lon="3.956061188956194"><ele>450.5</ele><time>2026-04-03T09:51:28.999Z</time></trkpt><trkpt lat="44.14700616155378" lon="3.9562491991891995"><ele>450.25</ele><time>2026-04-03T09:51:29.999Z</time></trkpt><trkpt lat="44.14695934923599" lon="3.9564278601412113"><ele>450.0</ele><time>2026-04-03T09:51:30.999Z</time></trkpt><trkpt lat="44.14692821413252" lon="3.95662347557918"><ele>446.25</ele><time>2026-04-03T09:51:31.999Z</time></trkpt><trkpt lat="44.14689544819732" lon="3.95681846603903"><ele>442.5</ele><time>2026-04-03T09:51:32.999Z</time></trkpt><trkpt lat="44.14686063940899" lon="3.956997160733029"><ele>438.75</ele><time>2026-04-03T09:51:33.999Z</time></trkpt><trkpt lat="44.146817642832104" lon="3.957161438871461"><ele>435.0</ele><time>2026-04-03T09:51:34.999Z</time></trkpt><trkpt lat="44.146751696046145" lon="3.9572894340831795"><ele>435.0</ele><time>2026-04-03T09:51:35.999Z</time></trkpt><trkpt lat="44.146670422672734" lon="3.9573668604896395"><ele>435.0</ele><time>2026-04-03T09:51:36.999Z</time></trkpt><trkpt lat="44.14653421313682" lon="3.957486352173084"><ele>435.0</ele><time>2026-04-03T09:51:37.999Z</time></trkpt><trkpt lat="44.14640373767398" lon="3.9575729723010507"><ele>435.0</ele><time>2026-04-03T09:51:38.999Z</time></trkpt><trkpt lat="44.14625953392054" lon="3.957658020056847"><ele>432.66666666666663</ele><time>2026-04-03T09:51:39.999Z</time></trkpt><trkpt lat="44.14611099468339" lon="3.9577417153099517"><ele>430.3333333333333</ele><time>2026-04-03T09:51:40.999Z</time></trkpt><trkpt lat="44.145971936046045" lon="3.957827553143192"><ele>428.0</ele><time>2026-04-03T09:51:41.999Z</time></trkpt><trkpt lat="44.14585119311059" lon="3.957939314831636"><ele>428.0</ele><time>2026-04-03T09:51:42.999Z</time></trkpt><trkpt lat="44.14572396213462" lon="3.9580674434828103"><ele>428.0</ele><time>2026-04-03T09:51:43.999Z</time></trkpt><trkpt lat="44.145610576461465" lon="3.9582333881894995"><ele>428.0</ele><time>2026-04-03T09:51:44.999Z</time></trkpt><trkpt lat="44.14551329984732" lon="3.9583971355589402"><ele>434.75</ele><time>2026-04-03T09:51:45.999Z</time></trkpt><trkpt lat="44.14542418052236" lon="3.958556824585864"><ele>441.5</ele><time>2026-04-03T09:51:46.999Z</time></trkpt><trkpt lat="44.14535328423459" lon="3.9587180380347866"><ele>448.25</ele><time>2026-04-03T09:51:47.999Z</time></trkpt><trkpt lat="44.1453161717785" lon="3.9588954732143935"><ele>455.0</ele><time>2026-04-03T09:51:48.999Z</time></trkpt><trkpt lat="44.1453192730694" lon="3.9590718944853056"><ele>456.3333333333333</ele><time>2026-04-03T09:51:49.999Z</time></trkpt><trkpt lat="44.14534579125241" lon="3.95926460040665"><ele>457.66666666666663</ele><time>2026-04-03T09:51:50.999Z</time></trkpt><trkpt lat="44.14537812859056" lon="3.9594808732501248"><ele>459.0</ele><time>2026-04-03T09:51:51.999Z</time></trkpt><trkpt lat="44.14540646887818" lon="3.9596901182731097"><ele>459.0</ele><time>2026-04-03T09:51:52.999Z</time></trkpt><trkpt lat="44.145428918205894" lon="3.9598739904836107"><ele>459.0</ele><time>2026-04-03T09:51:53.999Z</time></trkpt><trkpt lat="44.14545079375858" lon="3.960038551238337"><ele>459.0</ele><time>2026-04-03T09:51:54.999Z</time></trkpt><trkpt lat="44.1455022823507" lon="3.9601835096470293"><ele>459.0</ele><time>2026-04-03T09:51:55.999Z</time></trkpt><trkpt lat="44.14558575514913" lon="3.9603270778053425"><ele>463.0</ele><time>2026-04-03T09:51:56.999Z</time></trkpt><trkpt lat="44.145687491172104" lon="3.9604233781634446"><ele>467.0</ele><time>2026-04-03T09:51:57.999Z</time></trkpt><trkpt lat="44.145804997396645" lon="3.9605062724981814"><ele>471.0</ele><time>2026-04-03T09:51:58.999Z</time></trkpt><trkpt lat="44.14590749739624" lon="3.9606157523105434"><ele>475.0</ele><time>2026-04-03T09:51:59.999Z</time></trkpt><trkpt lat="44.14594850081154" lon="3.9607740479676252"><ele>469.25</ele><time>2026-04-03T09:52:00.999Z</time></trkpt><trkpt lat="44.14597843895415" lon="3.960932300364233"><ele>463.5</ele><time>2026-04-03T09:52:01.999Z</time></trkpt><trkpt lat="44.14602057765703" lon="3.961086489957986"><ele>457.75</ele><time>2026-04-03T09:52:02.999Z</time></trkpt><trkpt lat="44.14610433827027" lon="3.961232082060543"><ele>452.0</ele><time>2026-04-03T09:52:03.999Z</time></trkpt><trkpt lat="44.14620133836221" lon="3.9613510838387005"><ele>452.0</ele><time>2026-04-03T09:52:04.999Z</time></trkpt><trkpt lat="44.146327246171985" lon="3.961388015489847"><ele>452.00000000000006</ele><time>2026-04-03T09:52:05.999Z</time></trkpt><trkpt lat="44.1464331184783" lon="3.961388115278781"><ele>452.00000000000006</ele><time>2026-04-03T09:52:06.999Z</time></trkpt><trkpt lat="44.14653308672846" lon="3.9613883565168497"><ele>452.0</ele><time>2026-04-03T09:52:07.999Z</time></trkpt><trkpt lat="44.14660563382128" lon="3.961469020598996"><ele>452.0</ele><time>2026-04-03T09:52:08.999Z</time></trkpt><trkpt lat="44.146687739841816" lon="3.961558636535867"><ele>451.0</ele><time>2026-04-03T09:52:09.999Z</time></trkpt><trkpt lat="44.146787954865374" lon="3.9616871635737465"><ele>450.0</ele><time>2026-04-03T09:52:10.999Z</time></trkpt><trkpt lat="44.14691220089773" lon="3.9617900386812104"><ele>449.0</ele><time>2026-04-03T09:52:11.999Z</time></trkpt><trkpt lat="44.14706128255146" lon="3.9618443999718354"><ele>448.0</ele><time>2026-04-03T09:52:12.999Z</time></trkpt><trkpt lat="44.14720332859009" lon="3.9618964066119755"><ele>448.0</ele><time>2026-04-03T09:52:13.999Z</time></trkpt><trkpt lat="44.1473338270956" lon="3.961955502650933"><ele>448.0</ele><time>2026-04-03T09:52:14.999Z</time></trkpt><trkpt lat="44.14745507884159" lon="3.962010716852584"><ele>448.0</ele><time>2026-04-03T09:52:15.999Z</time></trkpt><trkpt lat="44.14757146012695" lon="3.962066000699322"><ele>448.0</ele><time>2026-04-03T09:52:16.999Z</time></trkpt><trkpt lat="44.14768465521416" lon="3.96212146148315"><ele>443.5</ele><time>2026-04-03T09:52:17.999Z</time></trkpt><trkpt lat="44.147799093117435" lon="3.9621811547880026"><ele>439.0</ele><time>2026-04-03T09:52:18.999Z</time></trkpt><trkpt lat="44.147922697303734" lon="3.962263586183245"><ele>434.5</ele><time>2026-04-03T09:52:19.999Z</time></trkpt><trkpt lat="44.14801829717649" lon="3.9623975919943764"><ele>430.0</ele><time>2026-04-03T09:52:20.999Z</time></trkpt><trkpt lat="44.148097347126566" lon="3.9625197959145404"><ele>431.4</ele><time>2026-04-03T09:52:21.999Z</time></trkpt><trkpt lat="44.14815283229142" lon="3.962643625829923"><ele>432.8</ele><time>2026-04-03T09:52:22.999Z</time></trkpt><trkpt lat="44.14814547423395" lon="3.9627911240702107"><ele>434.20000000000005</ele><time>2026-04-03T09:52:23.999Z</time></trkpt><trkpt lat="44.14815823415543" lon="3.9629402677858834"><ele>435.6</ele><time>2026-04-03T09:52:24.999Z</time></trkpt><trkpt lat="44.148182879047624" lon="3.9631057247951085"><ele>437.0</ele><time>2026-04-03T09:52:25.999Z</time></trkpt><trkpt lat="44.14819234734921" lon="3.963284684164103"><ele>437.25</ele><time>2026-04-03T09:52:26.999Z</time></trkpt><trkpt lat="44.14820467250605" lon="3.9634781295845047"><ele>437.5</ele><time>2026-04-03T09:52:27.999Z</time></trkpt><trkpt lat="44.14822520085584" lon="3.963682466450405"><ele>437.75</ele><time>2026-04-03T09:52:28.999Z</time></trkpt><trkpt lat="44.148237284662414" lon="3.963887961191329"><ele>438.0</ele><time>2026-04-03T09:52:29.999Z</time></trkpt><trkpt lat="44.1482495615611" lon="3.964100424417453"><ele>428.0</ele><time>2026-04-03T09:52:30.999Z</time></trkpt><trkpt lat="44.14826224639043" lon="3.964333661219524"><ele>418.0</ele><time>2026-04-03T09:52:31.999Z</time></trkpt><trkpt lat="44.14827780086646" lon="3.964559528067745"><ele>408.0</ele><time>2026-04-03T09:52:32.999Z</time></trkpt><trkpt lat="44.14829532169027" lon="3.9647668397630453"><ele>408.0</ele><time>2026-04-03T09:52:33.999Z</time></trkpt><trkpt lat="44.14827446322915" lon="3.9649286136878383"><ele>408.0</ele><time>2026-04-03T09:52:34.999Z</time></trkpt><trkpt lat="44.1482339894131" lon="3.9650546743318595"><ele>408.0</ele><time>2026-04-03T09:52:35.999Z</time></trkpt><trkpt lat="44.148180019721245" lon="3.965234740090662"><ele>408.0</ele><time>2026-04-03T09:52:36.999Z</time></trkpt><trkpt lat="44.148165542117695" lon="3.9654224706016072"><ele>409.66666666666663</ele><time>2026-04-03T09:52:37.999Z</time></trkpt><trkpt lat="44.1481825796998" lon="3.9656415355441688"><ele>411.3333333333333</ele><time>2026-04-03T09:52:38.999Z</time></trkpt><trkpt lat="44.148223501635684" lon="3.965862540185952"><ele>413.0</ele><time>2026-04-03T09:52:39.999Z</time></trkpt><trkpt lat="44.148264363402454" lon="3.966043198390528"><ele>413.0</ele><time>2026-04-03T09:52:40.999Z</time></trkpt><trkpt lat="44.14831899849273" lon="3.9661932224616003"><ele>413.0</ele><time>2026-04-03T09:52:41.999Z</time></trkpt><trkpt lat="44.14840884611633" lon="3.9663107187698645"><ele>413.0</ele><time>2026-04-03T09:52:42.999Z</time></trkpt><trkpt lat="44.148514547642776" lon="3.9664136474614424"><ele>413.0</ele><time>2026-04-03T09:52:43.999Z</time></trkpt><trkpt lat="44.148601578972354" lon="3.9665058702679032"><ele>413.0</ele><time>2026-04-03T09:52:44.999Z</time></trkpt><trkpt lat="44.14867830798447" lon="3.9666045845534477"><ele>413.0</ele><time>2026-04-03T09:52:45.999Z</time></trkpt><trkpt lat="44.148713418784936" lon="3.9667346040963585"><ele>413.0</ele><time>2026-04-03T09:52:46.999Z</time></trkpt><trkpt lat="44.14872951188419" lon="3.9668764218237387"><ele>413.0</ele><time>2026-04-03T09:52:47.999Z</time></trkpt><trkpt lat="44.14872145918885" lon="3.9670482281270423"><ele>413.0</ele><time>2026-04-03T09:52:48.999Z</time></trkpt><trkpt lat="44.148706611015086" lon="3.967242965533759"><ele>415.3333333333333</ele><time>2026-04-03T09:52:49.999Z</time></trkpt><trkpt lat="44.148725493708014" lon="3.967448637421266"><ele>417.66666666666663</ele><time>2026-04-03T09:52:50.999Z</time></trkpt><trkpt lat="44.14875727093967" lon="3.967661927987569"><ele>420.0</ele><time>2026-04-03T09:52:51.999Z</time></trkpt><trkpt lat="44.148814045769726" lon="3.967871727494243"><ele>420.33333333333337</ele><time>2026-04-03T09:52:52.999Z</time></trkpt><trkpt lat="44.14886718554786" lon="3.968083764627908"><ele>420.6666666666667</ele><time>2026-04-03T09:52:53.999Z</time></trkpt><trkpt lat="44.14890008904773" lon="3.96830800953436"><ele>421.0</ele><time>2026-04-03T09:52:54.999Z</time></trkpt><trkpt lat="44.1489408270198" lon="3.9685108408993295"><ele>419.5</ele><time>2026-04-03T09:52:55.999Z</time></trkpt><trkpt lat="44.14899626253738" lon="3.9686913447524947"><ele>418.0</ele><time>2026-04-03T09:52:56.999Z</time></trkpt><trkpt lat="44.149030306299046" lon="3.9688599018537776"><ele>416.5</ele><time>2026-04-03T09:52:57.999Z</time></trkpt><trkpt lat="44.149062170788994" lon="3.969000071369833"><ele>415.0</ele><time>2026-04-03T09:52:58.999Z</time></trkpt><trkpt lat="44.14906791779985" lon="3.9691161214133084"><ele>412.8571428571429</ele><time>2026-04-03T09:52:59.999Z</time></trkpt><trkpt lat="44.149076094803235" lon="3.9692129560203147"><ele>410.7142857142857</ele><time>2026-04-03T09:53:00.999Z</time></trkpt><trkpt lat="44.149097005793465" lon="3.9693134853591645"><ele>408.57142857142856</ele><time>2026-04-03T09:53:01.999Z</time></trkpt><trkpt lat="44.14904799921339" lon="3.9693943759233474"><ele>406.42857142857144</ele><time>2026-04-03T09:53:02.999Z</time></trkpt><trkpt lat="44.149010935457994" lon="3.9694713183796932"><ele>404.2857142857143</ele><time>2026-04-03T09:53:03.999Z</time></trkpt><trkpt lat="44.14895847542901" lon="3.9695351576777127"><ele>402.14285714285717</ele><time>2026-04-03T09:53:04.999Z</time></trkpt><trkpt lat="44.148884238034036" lon="3.969600669687289"><ele>400.0</ele><time>2026-04-03T09:53:05.999Z</time></trkpt><trkpt lat="44.14878307636408" lon="3.9696945761784286"><ele>400.0</ele><time>2026-04-03T09:53:06.999Z</time></trkpt><trkpt lat="44.148669527386645" lon="3.969816613800142"><ele>400.0</ele><time>2026-04-03T09:53:07.999Z</time></trkpt><trkpt lat="44.14857247586775" lon="3.969934257439093"><ele>400.0</ele><time>2026-04-03T09:53:08.999Z</time></trkpt><trkpt lat="44.14848668537444" lon="3.9700450263633327"><ele>400.0</ele><time>2026-04-03T09:53:09.999Z</time></trkpt><trkpt lat="44.148430934936094" lon="3.970191816785611"><ele>397.75</ele><time>2026-04-03T09:53:10.999Z</time></trkpt><trkpt lat="44.148371267673774" lon="3.9703497889391737"><ele>395.5</ele><time>2026-04-03T09:53:11.999Z</time></trkpt><trkpt lat="44.14829915026706" lon="3.970506686186019"><ele>393.25</ele><time>2026-04-03T09:53:12.999Z</time></trkpt><trkpt lat="44.14823345197856" lon="3.970688320085628"><ele>391.0</ele><time>2026-04-03T09:53:13.999Z</time></trkpt><trkpt lat="44.14816005142824" lon="3.970862699884577"><ele>391.0</ele><time>2026-04-03T09:53:14.999Z</time></trkpt><trkpt lat="44.14805859402503" lon="3.971016080453182"><ele>391.0</ele><time>2026-04-03T09:53:15.999Z</time></trkpt><trkpt lat="44.14798069207312" lon="3.9711971887529325"><ele>391.0</ele><time>2026-04-03T09:53:16.999Z</time></trkpt><trkpt lat="44.14793985542089" lon="3.971401793557149"><ele>391.0</ele><time>2026-04-03T09:53:17.999Z</time></trkpt><trkpt lat="44.1478693579405" lon="3.9716032774461785"><ele>391.0</ele><time>2026-04-03T09:53:18.999Z</time></trkpt><trkpt lat="44.147799624412286" lon="3.971810106753755"><ele>391.0</ele><time>2026-04-03T09:53:19.999Z</time></trkpt><trkpt lat="44.14766955698399" lon="3.9719595379514603"><ele>388.6666666666667</ele><time>2026-04-03T09:53:20.999Z</time></trkpt><trkpt lat="44.14752653784854" lon="3.9720972567588904"><ele>386.33333333333337</ele><time>2026-04-03T09:53:21.999Z</time></trkpt><trkpt lat="44.147387683392566" lon="3.9722411443225085"><ele>384.0</ele><time>2026-04-03T09:53:22.999Z</time></trkpt><trkpt lat="44.1472673458729" lon="3.972383133693268"><ele>384.0</ele><time>2026-04-03T09:53:23.999Z</time></trkpt><trkpt lat="44.14714071833509" lon="3.972501074449987"><ele>384.0</ele><time>2026-04-03T09:53:24.999Z</time></trkpt><trkpt lat="44.14700406517935" lon="3.9725741713102094"><ele>384.0</ele><time>2026-04-03T09:53:25.999Z</time></trkpt><trkpt lat="44.1468694331011" lon="3.972637512960134"><ele>384.0</ele><time>2026-04-03T09:53:26.999Z</time></trkpt><trkpt lat="44.14675236974739" lon="3.972709232888564"><ele>382.75</ele><time>2026-04-03T09:53:27.999Z</time></trkpt><trkpt lat="44.146669449194654" lon="3.9727990103202853"><ele>381.5</ele><time>2026-04-03T09:53:28.999Z</time></trkpt><trkpt lat="44.14661120718216" lon="3.972894159461421"><ele>380.25</ele><time>2026-04-03T09:53:29.999Z</time></trkpt><trkpt lat="44.1466393691289" lon="3.973076644479557"><ele>379.0</ele><time>2026-04-03T09:53:30.999Z</time></trkpt><trkpt lat="44.146670794033724" lon="3.9732512184341773"><ele>381.0</ele><time>2026-04-03T09:53:31.999Z</time></trkpt><trkpt lat="44.14673760399742" lon="3.973445510960464"><ele>383.0</ele><time>2026-04-03T09:53:32.999Z</time></trkpt><trkpt lat="44.146816628894086" lon="3.9736235674525493"><ele>385.0</ele><time>2026-04-03T09:53:33.999Z</time></trkpt><trkpt lat="44.14687700220864" lon="3.9738183313068958"><ele>385.0</ele><time>2026-04-03T09:53:34.999Z</time></trkpt><trkpt lat="44.14693904631717" lon="3.9740148357215572"><ele>385.0</ele><time>2026-04-03T09:53:35.999Z</time></trkpt><trkpt lat="44.14698575112147" lon="3.9742220436029476"><ele>385.0</ele><time>2026-04-03T09:53:36.999Z</time></trkpt><trkpt lat="44.14704597679729" lon="3.9744297960508472"><ele>388.33333333333337</ele><time>2026-04-03T09:53:37.999Z</time></trkpt><trkpt lat="44.14712038420454" lon="3.974638841313835"><ele>391.66666666666663</ele><time>2026-04-03T09:53:38.999Z</time></trkpt><trkpt lat="44.14720119873764" lon="3.9748541434188818"><ele>395.0</ele><time>2026-04-03T09:53:39.999Z</time></trkpt><trkpt lat="44.1473216585601" lon="3.9750577323437"><ele>387.0</ele><time>2026-04-03T09:53:40.999Z</time></trkpt><trkpt lat="44.14744044368049" lon="3.9752658204164524"><ele>379.0</ele><time>2026-04-03T09:53:41.999Z</time></trkpt><trkpt lat="44.147534615725654" lon="3.9754961169434773"><ele>371.0</ele><time>2026-04-03T09:53:42.999Z</time></trkpt><trkpt lat="44.14761863466769" lon="3.975723676367088"><ele>370.0</ele><time>2026-04-03T09:53:43.999Z</time></trkpt><trkpt lat="44.147708642061914" lon="3.97592634660755"><ele>369.0</ele><time>2026-04-03T09:53:44.999Z</time></trkpt><trkpt lat="44.147779377130846" lon="3.9760881111670527"><ele>368.0</ele><time>2026-04-03T09:53:45.999Z</time></trkpt><trkpt lat="44.14781016536536" lon="3.9762435660579536"><ele>367.0</ele><time>2026-04-03T09:53:46.999Z</time></trkpt><trkpt lat="44.14781326129828" lon="3.97638243007283"><ele>367.0</ele><time>2026-04-03T09:53:47.999Z</time></trkpt><trkpt lat="44.14778496026442" lon="3.9765475181964414"><ele>367.0</ele><time>2026-04-03T09:53:48.999Z</time></trkpt><trkpt lat="44.147728425275666" lon="3.976718342514881"><ele>367.0</ele><time>2026-04-03T09:53:49.999Z</time></trkpt><trkpt lat="44.14766132036601" lon="3.976875140681414"><ele>367.0</ele><time>2026-04-03T09:53:50.999Z</time></trkpt><trkpt lat="44.14757854337783" lon="3.977008769477526"><ele>365.75</ele><time>2026-04-03T09:53:51.999Z</time></trkpt><trkpt lat="44.14749233976962" lon="3.9771466492653023"><ele>364.5</ele><time>2026-04-03T09:53:52.999Z</time></trkpt><trkpt lat="44.14739729363137" lon="3.9772982664394734"><ele>363.25</ele><time>2026-04-03T09:53:53.999Z</time></trkpt><trkpt lat="44.14729895037887" lon="3.9774665971754883"><ele>362.0</ele><time>2026-04-03T09:53:54.999Z</time></trkpt><trkpt lat="44.14720781100005" lon="3.9776435590982575"><ele>362.0</ele><time>2026-04-03T09:53:55.999Z</time></trkpt><trkpt lat="44.14711697299337" lon="3.977796294243393"><ele>362.0</ele><time>2026-04-03T09:53:56.999Z</time></trkpt><trkpt lat="44.14703870518124" lon="3.977942419552347"><ele>362.0</ele><time>2026-04-03T09:53:57.999Z</time></trkpt><trkpt lat="44.1469539977217" lon="3.9780683308161424"><ele>362.0</ele><time>2026-04-03T09:53:58.999Z</time></trkpt><trkpt lat="44.14682910379673" lon="3.9780995436036446"><ele>362.0</ele><time>2026-04-03T09:53:59.999Z</time></trkpt><trkpt lat="44.14672046078658" lon="3.97816408831047"><ele>362.0</ele><time>2026-04-03T09:54:00.999Z</time></trkpt><trkpt lat="44.1466309765237" lon="3.978250745380738"><ele>362.0</ele><time>2026-04-03T09:54:01.999Z</time></trkpt><trkpt lat="44.14662977914683" lon="3.978425365664387"><ele>362.0</ele><time>2026-04-03T09:54:02.999Z</time></trkpt><trkpt lat="44.14666081358209" lon="3.978549053152211"><ele>362.0</ele><time>2026-04-03T09:54:03.999Z</time></trkpt><trkpt lat="44.14673150011773" lon="3.978675079280099"><ele>364.0</ele><time>2026-04-03T09:54:04.999Z</time></trkpt><trkpt lat="44.14686295919615" lon="3.9788070316078454"><ele>366.0</ele><time>2026-04-03T09:54:05.999Z</time></trkpt><trkpt lat="44.14699030302542" lon="3.9789389074763393"><ele>368.0</ele><time>2026-04-03T09:54:06.999Z</time></trkpt><trkpt lat="44.147107302370756" lon="3.9790899217737543"><ele>370.25</ele><time>2026-04-03T09:54:07.999Z</time></trkpt><trkpt lat="44.147213537044735" lon="3.9792298225798612"><ele>372.5</ele><time>2026-04-03T09:54:08.999Z</time></trkpt><trkpt lat="44.14732555320522" lon="3.9793587240495785"><ele>374.75</ele><time>2026-04-03T09:54:09.999Z</time></trkpt><trkpt lat="44.14737431638229" lon="3.9795107576797513"><ele>377.0</ele><time>2026-04-03T09:54:10.999Z</time></trkpt><trkpt lat="44.14740490968952" lon="3.979652907428024"><ele>377.0</ele><time>2026-04-03T09:54:11.999Z</time></trkpt><trkpt lat="44.14740565783495" lon="3.9798042835733956"><ele>377.0</ele><time>2026-04-03T09:54:12.999Z</time></trkpt><trkpt lat="44.14732889834907" lon="3.9799636147488475"><ele>377.0</ele><time>2026-04-03T09:54:13.999Z</time></trkpt><trkpt lat="44.147264752245135" lon="3.980200597666424"><ele>377.0</ele><time>2026-04-03T09:54:14.999Z</time></trkpt><trkpt lat="44.14718448206163" lon="3.9804154692988187"><ele>377.25</ele><time>2026-04-03T09:54:15.999Z</time></trkpt><trkpt lat="44.14713858508069" lon="3.980605977725659"><ele>377.5</ele><time>2026-04-03T09:54:16.999Z</time></trkpt><trkpt lat="44.14715939867171" lon="3.9807851084850596"><ele>377.75</ele><time>2026-04-03T09:54:17.999Z</time></trkpt><trkpt lat="44.14723871800146" lon="3.9809614700972866"><ele>378.0</ele><time>2026-04-03T09:54:18.999Z</time></trkpt><trkpt lat="44.14733934818662" lon="3.9811630631619357"><ele>365.3333333333333</ele><time>2026-04-03T09:54:19.999Z</time></trkpt><trkpt lat="44.147433716591856" lon="3.9813649565637883"><ele>352.66666666666663</ele><time>2026-04-03T09:54:20.999Z</time></trkpt><trkpt lat="44.1475121699531" lon="3.9815421400404105"><ele>340.0</ele><time>2026-04-03T09:54:21.999Z</time></trkpt><trkpt lat="44.14757994160931" lon="3.981701794598711"><ele>339.75</ele><time>2026-04-03T09:54:22.999Z</time></trkpt><trkpt lat="44.14762910682306" lon="3.9818540098144357"><ele>339.5</ele><time>2026-04-03T09:54:23.999Z</time></trkpt><trkpt lat="44.14764080479808" lon="3.981999778257622"><ele>339.25</ele><time>2026-04-03T09:54:24.999Z</time></trkpt><trkpt lat="44.14757614858517" lon="3.9821152486343125"><ele>339.0</ele><time>2026-04-03T09:54:25.999Z</time></trkpt><trkpt lat="44.147473519160386" lon="3.982230382889456"><ele>339.0</ele><time>2026-04-03T09:54:26.999Z</time></trkpt><trkpt lat="44.1473787905737" lon="3.9824015315462273"><ele>339.0</ele><time>2026-04-03T09:54:27.999Z</time></trkpt><trkpt lat="44.14727533802473" lon="3.982568700974292"><ele>339.0</ele><time>2026-04-03T09:54:28.999Z</time></trkpt><trkpt lat="44.14719544456094" lon="3.9827392956997953"><ele>347.25</ele><time>2026-04-03T09:54:29.999Z</time></trkpt><trkpt lat="44.14713385726219" lon="3.982876753970623"><ele>355.5</ele><time>2026-04-03T09:54:30.999Z</time></trkpt><trkpt lat="44.1471200680695" lon="3.9830578869336724"><ele>363.75</ele><time>2026-04-03T09:54:31.999Z</time></trkpt><trkpt lat="44.147126747211495" lon="3.9832149975478526"><ele>372.0</ele><time>2026-04-03T09:54:32.999Z</time></trkpt><trkpt lat="44.147219005059966" lon="3.9833281068578184"><ele>375.5</ele><time>2026-04-03T09:54:33.999Z</time></trkpt><trkpt lat="44.14733211835971" lon="3.9834069143492683"><ele>379.0</ele><time>2026-04-03T09:54:34.999Z</time></trkpt><trkpt lat="44.147476276351675" lon="3.9834652251684135"><ele>382.5</ele><time>2026-04-03T09:54:35.999Z</time></trkpt><trkpt lat="44.14758525767284" lon="3.9835769830497942"><ele>386.0</ele><time>2026-04-03T09:54:37Z</time></trkpt><trkpt lat="44.14766214727832" lon="3.9837198287400435"><ele>377.75</ele><time>2026-04-03T09:54:38Z</time></trkpt><trkpt lat="44.147752215307975" lon="3.983826775121441"><ele>369.5</ele><time>2026-04-03T09:54:39Z</time></trkpt><trkpt lat="44.14785063456964" lon="3.9838986163641796"><ele>361.25</ele><time>2026-04-03T09:54:40Z</time></trkpt><trkpt lat="44.14797017977452" lon="3.9839060169364338"><ele>353.0</ele><time>2026-04-03T09:54:41Z</time></trkpt><trkpt lat="44.148103725623876" lon="3.9838943307013936"><ele>348.75</ele><time>2026-04-03T09:54:42Z</time></trkpt><trkpt lat="44.148236436542334" lon="3.983894115708736"><ele>344.5</ele><time>2026-04-03T09:54:43Z</time></trkpt><trkpt lat="44.14837434909589" lon="3.9839347804901313"><ele>340.25</ele><time>2026-04-03T09:54:44Z</time></trkpt><trkpt lat="44.148501402888684" lon="3.9840413945052946"><ele>336.0</ele><time>2026-04-03T09:54:45Z</time></trkpt><trkpt lat="44.14863753026306" lon="3.9841029341369114"><ele>336.0</ele><time>2026-04-03T09:54:46Z</time></trkpt><trkpt lat="44.14876459930737" lon="3.984105065557692"><ele>336.0</ele><time>2026-04-03T09:54:47Z</time></trkpt><trkpt lat="44.148872199865856" lon="3.984105689785848"><ele>336.0</ele><time>2026-04-03T09:54:48Z</time></trkpt><trkpt lat="44.14895957549763" lon="3.9841272000684693"><ele>336.0</ele><time>2026-04-03T09:54:49Z</time></trkpt><trkpt lat="44.14902204609787" lon="3.9841904751177224"><ele>336.0</ele><time>2026-04-03T09:54:50Z</time></trkpt><trkpt lat="44.1490636398298" lon="3.9842788331689745"><ele>336.20000000000005</ele><time>2026-04-03T09:54:51Z</time></trkpt><trkpt lat="44.14909036265509" lon="3.984367583228603"><ele>336.40000000000003</ele><time>2026-04-03T09:54:52Z</time></trkpt><trkpt lat="44.14902919226151" lon="3.9845206144064154"><ele>336.6</ele><time>2026-04-03T09:54:54Z</time></trkpt><trkpt lat="44.14896992480148" lon="3.984595536014256"><ele>336.8</ele><time>2026-04-03T09:54:55Z</time></trkpt><trkpt lat="44.1488904482064" lon="3.9846832961597767"><ele>337.0</ele><time>2026-04-03T09:54:56Z</time></trkpt><trkpt lat="44.14879419685167" lon="3.984746079086717"><ele>337.0</ele><time>2026-04-03T09:54:57Z</time></trkpt><trkpt lat="44.14869706151403" lon="3.984817197853178"><ele>337.0</ele><time>2026-04-03T09:54:58Z</time></trkpt><trkpt lat="44.14862934879634" lon="3.984891196366804"><ele>337.0</ele><time>2026-04-03T09:54:59Z</time></trkpt><trkpt lat="44.148587819311096" lon="3.984991469457017"><ele>337.0</ele><time>2026-04-03T09:55:00Z</time></trkpt><trkpt lat="44.14858560654043" lon="3.985117614761906"><ele>337.0</ele><time>2026-04-03T09:55:01Z</time></trkpt><trkpt lat="44.148625127309195" lon="3.9852354581341483"><ele>336.8</ele><time>2026-04-03T09:55:02Z</time></trkpt><trkpt lat="44.148707939844655" lon="3.9853217640107172"><ele>336.6</ele><time>2026-04-03T09:55:03Z</time></trkpt><trkpt lat="44.148811127694884" lon="3.985367928309291"><ele>336.40000000000003</ele><time>2026-04-03T09:55:04Z</time></trkpt><trkpt lat="44.148918859540125" lon="3.9853803310278932"><ele>336.20000000000005</ele><time>2026-04-03T09:55:05Z</time></trkpt><trkpt lat="44.149020699029386" lon="3.9854027775760508"><ele>336.0</ele><time>2026-04-03T09:55:06Z</time></trkpt><trkpt lat="44.14911838231397" lon="3.9854414329277206"><ele>334.25</ele><time>2026-04-03T09:55:07Z</time></trkpt><trkpt lat="44.14921786043156" lon="3.985523923633653"><ele>332.5</ele><time>2026-04-03T09:55:08Z</time></trkpt><trkpt lat="44.149349456556784" lon="3.985620812338943"><ele>330.75</ele><time>2026-04-03T09:55:09Z</time></trkpt><trkpt lat="44.14948993356219" lon="3.9857174042626795"><ele>329.0</ele><time>2026-04-03T09:55:10Z</time></trkpt><trkpt lat="44.14961659651137" lon="3.985823190050337"><ele>327.6</ele><time>2026-04-03T09:55:11Z</time></trkpt><trkpt lat="44.14972408601068" lon="3.985926276887256"><ele>326.2</ele><time>2026-04-03T09:55:12Z</time></trkpt><trkpt lat="44.149811305990404" lon="3.9860408098420566"><ele>324.8</ele><time>2026-04-03T09:55:13Z</time></trkpt><trkpt lat="44.14984424943836" lon="3.9861633875512967"><ele>323.40000000000003</ele><time>2026-04-03T09:55:14Z</time></trkpt><trkpt lat="44.14982775582596" lon="3.986299193199565"><ele>322.0</ele><time>2026-04-03T09:55:15Z</time></trkpt><trkpt lat="44.14973883264041" lon="3.9863510568696623"><ele>322.0</ele><time>2026-04-03T09:55:16Z</time></trkpt><trkpt lat="44.14966460015593" lon="3.986428378260751"><ele>322.0</ele><time>2026-04-03T09:55:17Z</time></trkpt><trkpt lat="44.14955184350868" lon="3.986476634015804"><ele>322.0</ele><time>2026-04-03T09:55:18Z</time></trkpt><trkpt lat="44.149423324984326" lon="3.9865265106089254"><ele>322.0</ele><time>2026-04-03T09:55:19Z</time></trkpt><trkpt lat="44.14928347310318" lon="3.9865406374956107"><ele>322.0</ele><time>2026-04-03T09:55:20Z</time></trkpt><trkpt lat="44.14913859617077" lon="3.9865989199305543"><ele>322.0</ele><time>2026-04-03T09:55:21Z</time></trkpt><trkpt lat="44.14899851705798" lon="3.986663326180056"><ele>322.0</ele><time>2026-04-03T09:55:22Z</time></trkpt><trkpt lat="44.14886301503063" lon="3.986743475292537"><ele>322.0</ele><time>2026-04-03T09:55:23Z</time></trkpt><trkpt lat="44.14873939357268" lon="3.9868295536135885"><ele>324.0</ele><time>2026-04-03T09:55:24Z</time></trkpt><trkpt lat="44.14862784238571" lon="3.9869100264441575"><ele>326.0</ele><time>2026-04-03T09:55:25Z</time></trkpt><trkpt lat="44.14854518686279" lon="3.9870157591300908"><ele>328.0</ele><time>2026-04-03T09:55:26Z</time></trkpt><trkpt lat="44.14850806903449" lon="3.987154716129405"><ele>330.0</ele><time>2026-04-03T09:55:27Z</time></trkpt><trkpt lat="44.14852220224948" lon="3.9873016225723594"><ele>330.0</ele><time>2026-04-03T09:55:28Z</time></trkpt><trkpt lat="44.14857977312201" lon="3.9874442586105436"><ele>330.0</ele><time>2026-04-03T09:55:29Z</time></trkpt><trkpt lat="44.14867387802147" lon="3.9875603709341387"><ele>330.0</ele><time>2026-04-03T09:55:30.001Z</time></trkpt><trkpt lat="44.14881257616015" lon="3.98770849358205"><ele>330.0</ele><time>2026-04-03T09:55:31Z</time></trkpt><trkpt lat="44.14888227526917" lon="3.9878465933676517"><ele>330.25</ele><time>2026-04-03T09:55:32Z</time></trkpt><trkpt lat="44.148948214024884" lon="3.987982862773619"><ele>330.5</ele><time>2026-04-03T09:55:33Z</time></trkpt><trkpt lat="44.148979038418574" lon="3.988148053788074"><ele>330.75</ele><time>2026-04-03T09:55:34Z</time></trkpt><trkpt lat="44.14905106902621" lon="3.9883189502045107"><ele>331.0</ele><time>2026-04-03T09:55:35Z</time></trkpt><trkpt lat="44.14911072308986" lon="3.9885354494407252"><ele>323.0</ele><time>2026-04-03T09:55:36.001Z</time></trkpt><trkpt lat="44.14920097506427" lon="3.988717264275656"><ele>315.0</ele><time>2026-04-03T09:55:37.001Z</time></trkpt><trkpt lat="44.14928071394676" lon="3.988898267976006"><ele>307.0</ele><time>2026-04-03T09:55:38.001Z</time></trkpt><trkpt lat="44.14930298745236" lon="3.989110020465296"><ele>305.25</ele><time>2026-04-03T09:55:39.001Z</time></trkpt><trkpt lat="44.14929050576871" lon="3.989318018830165"><ele>303.5</ele><time>2026-04-03T09:55:40Z</time></trkpt><trkpt lat="44.14921725678723" lon="3.9894843755279608"><ele>301.75</ele><time>2026-04-03T09:55:41Z</time></trkpt><trkpt lat="44.14913589638984" lon="3.9896512399409354"><ele>300.0</ele><time>2026-04-03T09:55:42.001Z</time></trkpt><trkpt lat="44.14902726053493" lon="3.989799245159485"><ele>300.0</ele><time>2026-04-03T09:55:43Z</time></trkpt><trkpt lat="44.1488780784928" lon="3.989867497847848"><ele>300.0</ele><time>2026-04-03T09:55:44Z</time></trkpt><trkpt lat="44.14872095380434" lon="3.9899096397547233"><ele>300.0</ele><time>2026-04-03T09:55:45Z</time></trkpt><trkpt lat="44.14856192779483" lon="3.9899190626425614"><ele>300.0</ele><time>2026-04-03T09:55:46Z</time></trkpt><trkpt lat="44.148422005295814" lon="3.989904103172095"><ele>300.0</ele><time>2026-04-03T09:55:47Z</time></trkpt><trkpt lat="44.14831701674395" lon="3.9899124455659636"><ele>300.0</ele><time>2026-04-03T09:55:48Z</time></trkpt><trkpt lat="44.14823249709751" lon="3.989973666005602"><ele>300.0</ele><time>2026-04-03T09:55:49Z</time></trkpt><trkpt lat="44.148187223835244" lon="3.990097461475575"><ele>300.0</ele><time>2026-04-03T09:55:50Z</time></trkpt><trkpt lat="44.14816185754213" lon="3.9902965256296654"><ele>300.0</ele><time>2026-04-03T09:55:51Z</time></trkpt><trkpt lat="44.148122098949564" lon="3.9905103502582477"><ele>300.0</ele><time>2026-04-03T09:55:52Z</time></trkpt><trkpt lat="44.14808630165011" lon="3.990707998197225"><ele>300.0</ele><time>2026-04-03T09:55:53Z</time></trkpt><trkpt lat="44.148042165052885" lon="3.990882992749811"><ele>300.0</ele><time>2026-04-03T09:55:54Z</time></trkpt><trkpt lat="44.14795905021677" lon="3.9910215808635816"><ele>300.0</ele><time>2026-04-03T09:55:55Z</time></trkpt><trkpt lat="44.14786347883384" lon="3.991165877450783"><ele>300.0</ele><time>2026-04-03T09:55:56Z</time></trkpt><trkpt lat="44.14777230609693" lon="3.9913406007230563"><ele>300.0</ele><time>2026-04-03T09:55:57Z</time></trkpt><trkpt lat="44.14774057661524" lon="3.9915680401868627"><ele>297.25</ele><time>2026-04-03T09:55:58Z</time></trkpt><trkpt lat="44.147724890541774" lon="3.9917901003668868"><ele>294.5</ele><time>2026-04-03T09:55:59Z</time></trkpt><trkpt lat="44.147710656504636" lon="3.991987743692927"><ele>291.75</ele><time>2026-04-03T09:56:00Z</time></trkpt><trkpt lat="44.14770222316188" lon="3.9921516255580904"><ele>289.0</ele><time>2026-04-03T09:56:01Z</time></trkpt><trkpt lat="44.14772115895273" lon="3.992309101174541"><ele>289.0</ele><time>2026-04-03T09:56:02Z</time></trkpt><trkpt lat="44.14780246979581" lon="3.9924761660237333"><ele>289.0</ele><time>2026-04-03T09:56:03Z</time></trkpt><trkpt lat="44.14792490116853" lon="3.9926501774998022"><ele>289.0</ele><time>2026-04-03T09:56:04Z</time></trkpt><trkpt lat="44.1480625119812" lon="3.9928281077810697"><ele>286.5</ele><time>2026-04-03T09:56:05Z</time></trkpt><trkpt lat="44.148170367756" lon="3.992989314298761"><ele>284.0</ele><time>2026-04-03T09:56:06Z</time></trkpt><trkpt lat="44.14825212293328" lon="3.993130891443521"><ele>281.5</ele><time>2026-04-03T09:56:07Z</time></trkpt><trkpt lat="44.148317718821644" lon="3.993277709722148"><ele>279.0</ele><time>2026-04-03T09:56:08Z</time></trkpt><trkpt lat="44.14834291041506" lon="3.993493069207823"><ele>276.0</ele><time>2026-04-03T09:56:09Z</time></trkpt><trkpt lat="44.14838768866177" lon="3.9937524552560566"><ele>273.0</ele><time>2026-04-03T09:56:10Z</time></trkpt><trkpt lat="44.1484634150218" lon="3.993981854790193"><ele>270.0</ele><time>2026-04-03T09:56:11Z</time></trkpt><trkpt lat="44.14854006288696" lon="3.9941703915221285"><ele>268.6</ele><time>2026-04-03T09:56:12Z</time></trkpt><trkpt lat="44.14859937838996" lon="3.994334709309773"><ele>267.2</ele><time>2026-04-03T09:56:13Z</time></trkpt><trkpt lat="44.1486190237671" lon="3.994491323103278"><ele>265.8</ele><time>2026-04-03T09:56:14Z</time></trkpt><trkpt lat="44.148599570939034" lon="3.994625942700478"><ele>264.4</ele><time>2026-04-03T09:56:15Z</time></trkpt><trkpt lat="44.14853987624616" lon="3.9947348794922157"><ele>263.0</ele><time>2026-04-03T09:56:16Z</time></trkpt><trkpt lat="44.1484494859454" lon="3.994771576554504"><ele>263.0</ele><time>2026-04-03T09:56:17Z</time></trkpt><trkpt lat="44.14835682644072" lon="3.9947156891367364"><ele>263.0</ele><time>2026-04-03T09:56:18Z</time></trkpt><trkpt lat="44.14826638662134" lon="3.994605203034824"><ele>263.0</ele><time>2026-04-03T09:56:19Z</time></trkpt><trkpt lat="44.148176127704645" lon="3.9944189364688465"><ele>263.0</ele><time>2026-04-03T09:56:20Z</time></trkpt><trkpt lat="44.14806099165288" lon="3.994247523576894"><ele>263.0</ele><time>2026-04-03T09:56:21Z</time></trkpt><trkpt lat="44.14789540930464" lon="3.9941254190185638"><ele>263.0</ele><time>2026-04-03T09:56:22Z</time></trkpt><trkpt lat="44.147698434981315" lon="3.9940192744361123"><ele>263.0</ele><time>2026-04-03T09:56:23Z</time></trkpt><trkpt lat="44.14752035570723" lon="3.993894246468445"><ele>263.0</ele><time>2026-04-03T09:56:24Z</time></trkpt><trkpt lat="44.14739397745158" lon="3.993762578574752"><ele>263.0</ele><time>2026-04-03T09:56:25Z</time></trkpt><trkpt lat="44.14727292237519" lon="3.99369906340969"><ele>263.0</ele><time>2026-04-03T09:56:26Z</time></trkpt><trkpt lat="44.14717225975501" lon="3.993643987298645"><ele>263.0</ele><time>2026-04-03T09:56:27Z</time></trkpt><trkpt lat="44.14707597749805" lon="3.9936732090167384"><ele>266.5</ele><time>2026-04-03T09:56:28Z</time></trkpt><trkpt lat="44.146982176447914" lon="3.993777493998406"><ele>270.0</ele><time>2026-04-03T09:56:29Z</time></trkpt><trkpt lat="44.146902495542214" lon="3.9939128137693403"><ele>273.5</ele><time>2026-04-03T09:56:30Z</time></trkpt><trkpt lat="44.14687500058387" lon="3.994056494927245"><ele>277.0</ele><time>2026-04-03T09:56:31Z</time></trkpt><trkpt lat="44.14689778014923" lon="3.9942261418189866"><ele>277.75</ele><time>2026-04-03T09:56:32Z</time></trkpt><trkpt lat="44.146960580679725" lon="3.9944039705626175"><ele>278.5</ele><time>2026-04-03T09:56:33Z</time></trkpt><trkpt lat="44.14703703665009" lon="3.994586632863922"><ele>279.25</ele><time>2026-04-03T09:56:34Z</time></trkpt><trkpt lat="44.14713744687303" lon="3.994722018911172"><ele>280.0</ele><time>2026-04-03T09:56:35Z</time></trkpt><trkpt lat="44.14728037681862" lon="3.994831289333609"><ele>273.66666666666663</ele><time>2026-04-03T09:56:36Z</time></trkpt><trkpt lat="44.14746158103993" lon="3.9949235278947115"><ele>267.3333333333333</ele><time>2026-04-03T09:56:37Z</time></trkpt><trkpt lat="44.14761679096509" lon="3.995026083554042"><ele>261.0</ele><time>2026-04-03T09:56:38Z</time></trkpt><trkpt lat="44.147707941847735" lon="3.9951716741641645"><ele>260.6666666666667</ele><time>2026-04-03T09:56:39Z</time></trkpt><trkpt lat="44.147747631604695" lon="3.9953350419219067"><ele>260.33333333333337</ele><time>2026-04-03T09:56:40Z</time></trkpt><trkpt lat="44.147785257131794" lon="3.9955577342011117"><ele>260.0</ele><time>2026-04-03T09:56:41Z</time></trkpt><trkpt lat="44.14784829473686" lon="3.99583100188008"><ele>259.0</ele><time>2026-04-03T09:56:42Z</time></trkpt><trkpt lat="44.147891289605944" lon="3.996133642766029"><ele>258.0</ele><time>2026-04-03T09:56:43Z</time></trkpt><trkpt lat="44.1479476191235" lon="3.996424816492698"><ele>257.0</ele><time>2026-04-03T09:56:44Z</time></trkpt><trkpt lat="44.14797272540309" lon="3.9966925622084624"><ele>254.66666666666669</ele><time>2026-04-03T09:56:45Z</time></trkpt><trkpt lat="44.14798446328211" lon="3.99695344696166"><ele>252.33333333333331</ele><time>2026-04-03T09:56:46Z</time></trkpt><trkpt lat="44.14801651474003" lon="3.9971811990841557"><ele>250.0</ele><time>2026-04-03T09:56:47Z</time></trkpt><trkpt lat="44.14807699930841" lon="3.997421734855718"><ele>245.33333333333331</ele><time>2026-04-03T09:56:48Z</time></trkpt><trkpt lat="44.14817992386785" lon="3.997664937918264"><ele>240.66666666666669</ele><time>2026-04-03T09:56:49Z</time></trkpt><trkpt lat="44.14829158998334" lon="3.9979287342434575"><ele>236.0</ele><time>2026-04-03T09:56:50Z</time></trkpt><trkpt lat="44.148384200290025" lon="3.9981638410837017"><ele>231.66666666666669</ele><time>2026-04-03T09:56:51Z</time></trkpt><trkpt lat="44.148468134281146" lon="3.9983688543711797"><ele>227.33333333333331</ele><time>2026-04-03T09:56:52Z</time></trkpt><trkpt lat="44.14855404643234" lon="3.9985598403704725"><ele>223.0</ele><time>2026-04-03T09:56:53Z</time></trkpt><trkpt lat="44.14866450722078" lon="3.9987333638777294"><ele>223.0</ele><time>2026-04-03T09:56:54Z</time></trkpt><trkpt lat="44.14880325232336" lon="3.998856546024456"><ele>223.0</ele><time>2026-04-03T09:56:55Z</time></trkpt><trkpt lat="44.14895388563149" lon="3.9989528968885195"><ele>223.0</ele><time>2026-04-03T09:56:56Z</time></trkpt><trkpt lat="44.14910891952315" lon="3.998999538650829"><ele>226.33333333333331</ele><time>2026-04-03T09:56:57Z</time></trkpt><trkpt lat="44.14927694532646" lon="3.998996266420531"><ele>229.66666666666669</ele><time>2026-04-03T09:56:58Z</time></trkpt><trkpt lat="44.14944257342832" lon="3.998969313657095"><ele>233.0</ele><time>2026-04-03T09:56:59Z</time></trkpt><trkpt lat="44.14960238348987" lon="3.9989401455149647"><ele>233.0</ele><time>2026-04-03T09:57:00Z</time></trkpt><trkpt lat="44.149750322238944" lon="3.998934214258742"><ele>233.0</ele><time>2026-04-03T09:57:01Z</time></trkpt><trkpt lat="44.14987986804428" lon="3.9989980662962283"><ele>233.0</ele><time>2026-04-03T09:57:02Z</time></trkpt><trkpt lat="44.1500082580158" lon="3.9990396184393786"><ele>233.0</ele><time>2026-04-03T09:57:03Z</time></trkpt><trkpt lat="44.15011264995249" lon="3.9991213735524025"><ele>230.25</ele><time>2026-04-03T09:57:04Z</time></trkpt><trkpt lat="44.15018850897257" lon="3.9992274161421406"><ele>227.5</ele><time>2026-04-03T09:57:05Z</time></trkpt><trkpt lat="44.15021462125033" lon="3.9993712381637736"><ele>224.75</ele><time>2026-04-03T09:57:06Z</time></trkpt><trkpt lat="44.15019913640667" lon="3.9995308304467856"><ele>222.0</ele><time>2026-04-03T09:57:07Z</time></trkpt><trkpt lat="44.15012017887165" lon="3.9996649271745124"><ele>222.0</ele><time>2026-04-03T09:57:08Z</time></trkpt><trkpt lat="44.15004425653443" lon="3.9997683061990945"><ele>222.0</ele><time>2026-04-03T09:57:09Z</time></trkpt><trkpt lat="44.14990088528582" lon="3.9997423157802765"><ele>222.0</ele><time>2026-04-03T09:57:10Z</time></trkpt><trkpt lat="44.14972259045589" lon="3.999746685193918"><ele>222.0</ele><time>2026-04-03T09:57:11Z</time></trkpt><trkpt lat="44.149520094769734" lon="3.9997629304611304"><ele>220.0</ele><time>2026-04-03T09:57:12Z</time></trkpt><trkpt lat="44.1493255712778" lon="3.999752979243567"><ele>218.0</ele><time>2026-04-03T09:57:13Z</time></trkpt><trkpt lat="44.14916129091822" lon="3.999726130288003"><ele>216.0</ele><time>2026-04-03T09:57:14Z</time></trkpt><trkpt lat="44.14900808961193" lon="3.9996724159674684"><ele>216.0</ele><time>2026-04-03T09:57:15Z</time></trkpt><trkpt lat="44.148864328597234" lon="3.999590289355401"><ele>216.0</ele><time>2026-04-03T09:57:16Z</time></trkpt><trkpt lat="44.14873515062729" lon="3.999499028989913"><ele>216.0</ele><time>2026-04-03T09:57:17Z</time></trkpt><trkpt lat="44.14859016795974" lon="3.999397608342762"><ele>216.0</ele><time>2026-04-03T09:57:18Z</time></trkpt><trkpt lat="44.148442096112205" lon="3.9992880695730757"><ele>216.0</ele><time>2026-04-03T09:57:19Z</time></trkpt><trkpt lat="44.148302085118345" lon="3.9991665476577687"><ele>216.0</ele><time>2026-04-03T09:57:20Z</time></trkpt><trkpt lat="44.14817121848414" lon="3.9990504892477885"><ele>217.33333333333331</ele><time>2026-04-03T09:57:21Z</time></trkpt><trkpt lat="44.14802862829602" lon="3.9989739701631124"><ele>218.66666666666666</ele><time>2026-04-03T09:57:22Z</time></trkpt><trkpt lat="44.147879392338695" lon="3.9989372134858616"><ele>220.0</ele><time>2026-04-03T09:57:23Z</time></trkpt><trkpt lat="44.147729616319" lon="3.99893427095987"><ele>220.0</ele><time>2026-04-03T09:57:24Z</time></trkpt><trkpt lat="44.147593894539796" lon="3.998937652633953"><ele>220.0</ele><time>2026-04-03T09:57:25Z</time></trkpt><trkpt lat="44.147490981586586" lon="3.998963414906644"><ele>220.0</ele><time>2026-04-03T09:57:26Z</time></trkpt><trkpt lat="44.147406131114" lon="3.9990447457442437"><ele>220.0</ele><time>2026-04-03T09:57:27Z</time></trkpt><trkpt lat="44.14736346339832" lon="3.9991801952626655"><ele>220.0</ele><time>2026-04-03T09:57:28Z</time></trkpt><trkpt lat="44.14735645198759" lon="3.9992976770549524"><ele>223.0</ele><time>2026-04-03T09:57:29Z</time></trkpt><trkpt lat="44.14740870619077" lon="3.999385515428891"><ele>226.0</ele><time>2026-04-03T09:57:30Z</time></trkpt><trkpt lat="44.14749170363166" lon="3.999435876648859"><ele>229.0</ele><time>2026-04-03T09:57:31Z</time></trkpt><trkpt lat="44.14760544872299" lon="3.999464761199487"><ele>232.0</ele><time>2026-04-03T09:57:32Z</time></trkpt><trkpt lat="44.14774738560371" lon="3.9995110174686537"><ele>235.0</ele><time>2026-04-03T09:57:33Z</time></trkpt><trkpt lat="44.14787642752184" lon="3.9995834759947453"><ele>235.0</ele><time>2026-04-03T09:57:34Z</time></trkpt><trkpt lat="44.14798712975034" lon="3.9997282043439584"><ele>235.0</ele><time>2026-04-03T09:57:35Z</time></trkpt><trkpt lat="44.148139050014244" lon="3.9998667904152745"><ele>235.0</ele><time>2026-04-03T09:57:36Z</time></trkpt><trkpt lat="44.148275587969835" lon="3.999998295479254"><ele>228.66666666666666</ele><time>2026-04-03T09:57:37Z</time></trkpt><trkpt lat="44.14841786895112" lon="4.000124523155072"><ele>222.33333333333331</ele><time>2026-04-03T09:57:38Z</time></trkpt><trkpt lat="44.14851448014877" lon="4.000287326351517"><ele>216.0</ele><time>2026-04-03T09:57:39Z</time></trkpt><trkpt lat="44.14860634496411" lon="4.000445742683002"><ele>216.0</ele><time>2026-04-03T09:57:40Z</time></trkpt><trkpt lat="44.14869720800934" lon="4.000600329501056"><ele>216.0</ele><time>2026-04-03T09:57:41Z</time></trkpt><trkpt lat="44.148798754696216" lon="4.000704967230756"><ele>216.0</ele><time>2026-04-03T09:57:42Z</time></trkpt><trkpt lat="44.14893419081283" lon="4.00078551405298"><ele>216.0</ele><time>2026-04-03T09:57:43Z</time></trkpt><trkpt lat="44.14911009295009" lon="4.00085738544828"><ele>212.66666666666669</ele><time>2026-04-03T09:57:44Z</time></trkpt><trkpt lat="44.149292669130325" lon="4.00094646340877"><ele>209.33333333333334</ele><time>2026-04-03T09:57:45Z</time></trkpt><trkpt lat="44.14946753137206" lon="4.001025281117097"><ele>206.0</ele><time>2026-04-03T09:57:46Z</time></trkpt><trkpt lat="44.149633726364854" lon="4.001080939676315"><ele>206.0</ele><time>2026-04-03T09:57:47Z</time></trkpt><trkpt lat="44.14978301005699" lon="4.001107463238646"><ele>206.0</ele><time>2026-04-03T09:57:48Z</time></trkpt><trkpt lat="44.14991409295536" lon="4.001149399828538"><ele>206.0</ele><time>2026-04-03T09:57:49Z</time></trkpt><trkpt lat="44.15001263747021" lon="4.001250002107842"><ele>206.0</ele><time>2026-04-03T09:57:50Z</time></trkpt><trkpt lat="44.15012010156787" lon="4.001364730635456"><ele>206.33333333333334</ele><time>2026-04-03T09:57:51Z</time></trkpt><trkpt lat="44.15027029983384" lon="4.001468290581081"><ele>206.66666666666669</ele><time>2026-04-03T09:57:52Z</time></trkpt><trkpt lat="44.1504266421357" lon="4.001582721188738"><ele>207.0</ele><time>2026-04-03T09:57:53Z</time></trkpt><trkpt lat="44.15057340982313" lon="4.001708306410741"><ele>207.0</ele><time>2026-04-03T09:57:54Z</time></trkpt><trkpt lat="44.15068831833856" lon="4.0018606866849735"><ele>207.0</ele><time>2026-04-03T09:57:55Z</time></trkpt><trkpt lat="44.15079953402327" lon="4.002026398671752"><ele>207.0</ele><time>2026-04-03T09:57:56Z</time></trkpt><trkpt lat="44.15086440350899" lon="4.0021885821465455"><ele>203.0</ele><time>2026-04-03T09:57:57Z</time></trkpt><trkpt lat="44.15091985140254" lon="4.002305744865467"><ele>199.0</ele><time>2026-04-03T09:57:58Z</time></trkpt><trkpt lat="44.1509503779516" lon="4.002416747353008"><ele>195.0</ele><time>2026-04-03T09:57:59Z</time></trkpt><trkpt lat="44.15091580311503" lon="4.002536206861346"><ele>191.0</ele><time>2026-04-03T09:58:00Z</time></trkpt><trkpt lat="44.15081477456492" lon="4.002644890748774"><ele>187.0</ele><time>2026-04-03T09:58:01Z</time></trkpt><trkpt lat="44.1507096171242" lon="4.002795990261318"><ele>197.0</ele><time>2026-04-03T09:58:02Z</time></trkpt><trkpt lat="44.15058618110306" lon="4.002979931789481"><ele>207.0</ele><time>2026-04-03T09:58:03Z</time></trkpt><trkpt lat="44.150471276839895" lon="4.003135560976653"><ele>217.0</ele><time>2026-04-03T09:58:04Z</time></trkpt><trkpt lat="44.15037164722279" lon="4.003271847597995"><ele>213.25</ele><time>2026-04-03T09:58:05Z</time></trkpt><trkpt lat="44.150284354163496" lon="4.003416198660245"><ele>209.5</ele><time>2026-04-03T09:58:06Z</time></trkpt><trkpt lat="44.15020557739741" lon="4.003600853926221"><ele>205.75</ele><time>2026-04-03T09:58:07Z</time></trkpt><trkpt lat="44.15014843906765" lon="4.00379287930043"><ele>202.0</ele><time>2026-04-03T09:58:08Z</time></trkpt><trkpt lat="44.15008695609324" lon="4.003972973448406"><ele>202.0</ele><time>2026-04-03T09:58:09Z</time></trkpt><trkpt lat="44.15001510729171" lon="4.004132133060695"><ele>202.0</ele><time>2026-04-03T09:58:10Z</time></trkpt><trkpt lat="44.14994212431879" lon="4.004261872825648"><ele>202.0</ele><time>2026-04-03T09:58:11Z</time></trkpt><trkpt lat="44.14985475330455" lon="4.004371080752659"><ele>202.0</ele><time>2026-04-03T09:58:12Z</time></trkpt><trkpt lat="44.14980813357394" lon="4.004509864002129"><ele>209.33333333333331</ele><time>2026-04-03T09:58:13Z</time></trkpt><trkpt lat="44.14973234144889" lon="4.004642846631593"><ele>216.66666666666669</ele><time>2026-04-03T09:58:14Z</time></trkpt><trkpt lat="44.14962517902862" lon="4.004804017668463"><ele>224.0</ele><time>2026-04-03T09:58:15Z</time></trkpt><trkpt lat="44.149503583210695" lon="4.004979162598591"><ele>225.0</ele><time>2026-04-03T09:58:16Z</time></trkpt><trkpt lat="44.14934286980195" lon="4.005143171381505"><ele>226.0</ele><time>2026-04-03T09:58:17Z</time></trkpt><trkpt lat="44.14917537418064" lon="4.005291708612443"><ele>227.0</ele><time>2026-04-03T09:58:18Z</time></trkpt><trkpt lat="44.14901674289064" lon="4.005437733298047"><ele>227.0</ele><time>2026-04-03T09:58:19Z</time></trkpt><trkpt lat="44.14886635507407" lon="4.005553729858638"><ele>227.0</ele><time>2026-04-03T09:58:20Z</time></trkpt><trkpt lat="44.14873814759175" lon="4.005666587494022"><ele>227.0</ele><time>2026-04-03T09:58:21Z</time></trkpt><trkpt lat="44.14863126599279" lon="4.005763347925871"><ele>218.25</ele><time>2026-04-03T09:58:22Z</time></trkpt><trkpt lat="44.14854428903739" lon="4.00584271289948"><ele>209.5</ele><time>2026-04-03T09:58:23Z</time></trkpt><trkpt lat="44.14846644385503" lon="4.005937113172971"><ele>200.75</ele><time>2026-04-03T09:58:24Z</time></trkpt><trkpt lat="44.148419802087425" lon="4.00609107104617"><ele>192.0</ele><time>2026-04-03T09:58:25Z</time></trkpt><trkpt lat="44.14840362597347" lon="4.006285498950808"><ele>192.0</ele><time>2026-04-03T09:58:26Z</time></trkpt><trkpt lat="44.148380177247596" lon="4.0065100171082015"><ele>192.0</ele><time>2026-04-03T09:58:27Z</time></trkpt><trkpt lat="44.14835844550231" lon="4.006723985575574"><ele>192.0</ele><time>2026-04-03T09:58:28Z</time></trkpt><trkpt lat="44.14833061663355" lon="4.0069263049852255"><ele>189.0</ele><time>2026-04-03T09:58:29Z</time></trkpt><trkpt lat="44.14831463135364" lon="4.0071334568744685"><ele>186.0</ele><time>2026-04-03T09:58:30Z</time></trkpt><trkpt lat="44.1482750831017" lon="4.007342329270355"><ele>183.0</ele><time>2026-04-03T09:58:31Z</time></trkpt><trkpt lat="44.1482316731221" lon="4.007550217252962"><ele>183.0</ele><time>2026-04-03T09:58:32Z</time></trkpt><trkpt lat="44.148173771440504" lon="4.007740504906433"><ele>183.0</ele><time>2026-04-03T09:58:33Z</time></trkpt><trkpt lat="44.14817842023026" lon="4.007922115059034"><ele>183.0</ele><time>2026-04-03T09:58:34Z</time></trkpt><trkpt lat="44.14821918184989" lon="4.008076151740404"><ele>183.0</ele><time>2026-04-03T09:58:35Z</time></trkpt><trkpt lat="44.14829667974967" lon="4.00824782301174"><ele>182.75</ele><time>2026-04-03T09:58:36Z</time></trkpt><trkpt lat="44.14836862682696" lon="4.008447736213715"><ele>182.5</ele><time>2026-04-03T09:58:37Z</time></trkpt><trkpt lat="44.1484619207527" lon="4.008608073613497"><ele>182.25</ele><time>2026-04-03T09:58:38Z</time></trkpt><trkpt lat="44.14854050509588" lon="4.008747110590674"><ele>182.0</ele><time>2026-04-03T09:58:39Z</time></trkpt><trkpt lat="44.148631920003396" lon="4.008871700388505"><ele>182.0</ele><time>2026-04-03T09:58:40Z</time></trkpt><trkpt lat="44.148719839658014" lon="4.008983519845251"><ele>182.0</ele><time>2026-04-03T09:58:41Z</time></trkpt><trkpt lat="44.14880815129749" lon="4.0090808627245265"><ele>182.0</ele><time>2026-04-03T09:58:42Z</time></trkpt><trkpt lat="44.14890163237467" lon="4.009155498356191"><ele>182.0</ele><time>2026-04-03T09:58:43Z</time></trkpt><trkpt lat="44.149010805933024" lon="4.009207346449335"><ele>180.0</ele><time>2026-04-03T09:58:44Z</time></trkpt><trkpt lat="44.149129996450604" lon="4.009253877841211"><ele>178.0</ele><time>2026-04-03T09:58:45Z</time></trkpt><trkpt lat="44.14925329998101" lon="4.009299423055915"><ele>176.0</ele><time>2026-04-03T09:58:46Z</time></trkpt><trkpt lat="44.14936929355304" lon="4.009341520452612"><ele>174.0</ele><time>2026-04-03T09:58:47Z</time></trkpt><trkpt lat="44.149470626758124" lon="4.009381887057492"><ele>174.0</ele><time>2026-04-03T09:58:48Z</time></trkpt><trkpt lat="44.14956351743073" lon="4.009422526112484"><ele>174.0</ele><time>2026-04-03T09:58:49Z</time></trkpt><trkpt lat="44.14965101583597" lon="4.009456060968384"><ele>174.0</ele><time>2026-04-03T09:58:50Z</time></trkpt><trkpt lat="44.14974613915471" lon="4.009491975304108"><ele>174.0</ele><time>2026-04-03T09:58:51Z</time></trkpt><trkpt lat="44.1498627583373" lon="4.0095379237322675"><ele>174.0</ele><time>2026-04-03T09:58:52Z</time></trkpt><trkpt lat="44.149973883505986" lon="4.009634691088716"><ele>173.6</ele><time>2026-04-03T09:58:53Z</time></trkpt><trkpt lat="44.15006658217633" lon="4.009733579433797"><ele>173.2</ele><time>2026-04-03T09:58:54Z</time></trkpt><trkpt lat="44.150131518357995" lon="4.009832719799283"><ele>172.79999999999998</ele><time>2026-04-03T09:58:55Z</time></trkpt><trkpt lat="44.150177230523965" lon="4.009955962805647"><ele>172.39999999999998</ele><time>2026-04-03T09:58:56Z</time></trkpt><trkpt lat="44.15021342097835" lon="4.0100793937761905"><ele>172.0</ele><time>2026-04-03T09:58:57Z</time></trkpt><trkpt lat="44.15023508530315" lon="4.010211111565893"><ele>174.25</ele><time>2026-04-03T09:58:58Z</time></trkpt><trkpt lat="44.15025943098144" lon="4.010367691509935"><ele>176.5</ele><time>2026-04-03T09:58:59Z</time></trkpt><trkpt lat="44.15022378182655" lon="4.0105710082046055"><ele>178.75</ele><time>2026-04-03T09:59:00Z</time></trkpt><trkpt lat="44.15019117129727" lon="4.010793029012096"><ele>181.0</ele><time>2026-04-03T09:59:01Z</time></trkpt><trkpt lat="44.15015999753001" lon="4.010989508013553"><ele>181.5</ele><time>2026-04-03T09:59:02Z</time></trkpt><trkpt lat="44.150128718254955" lon="4.011187697890557"><ele>182.0</ele><time>2026-04-03T09:59:03Z</time></trkpt><trkpt lat="44.15010097587693" lon="4.011383779029701"><ele>182.5</ele><time>2026-04-03T09:59:04Z</time></trkpt><trkpt lat="44.150088376257266" lon="4.011585904085506"><ele>183.0</ele><time>2026-04-03T09:59:05Z</time></trkpt><trkpt lat="44.1500584685306" lon="4.011816821589638"><ele>183.33333333333334</ele><time>2026-04-03T09:59:06Z</time></trkpt><trkpt lat="44.150019833845555" lon="4.012076752944387"><ele>183.66666666666669</ele><time>2026-04-03T09:59:07Z</time></trkpt><trkpt lat="44.149992145939365" lon="4.012307132468311"><ele>184.0</ele><time>2026-04-03T09:59:08Z</time></trkpt><trkpt lat="44.14996621371297" lon="4.0125012483571245"><ele>183.5</ele><time>2026-04-03T09:59:09Z</time></trkpt><trkpt lat="44.149947670319314" lon="4.012673135290109"><ele>183.0</ele><time>2026-04-03T09:59:10Z</time></trkpt><trkpt lat="44.14995156684062" lon="4.012829780216538"><ele>182.5</ele><time>2026-04-03T09:59:11Z</time></trkpt><trkpt lat="44.15001150473249" lon="4.012994799742874"><ele>182.0</ele><time>2026-04-03T09:59:12Z</time></trkpt><trkpt lat="44.15010192975342" lon="4.013193083800116"><ele>183.5</ele><time>2026-04-03T09:59:13Z</time></trkpt><trkpt lat="44.150167023266995" lon="4.013388979947207"><ele>185.0</ele><time>2026-04-03T09:59:14Z</time></trkpt><trkpt lat="44.15024577515841" lon="4.013535735217528"><ele>186.5</ele><time>2026-04-03T09:59:15Z</time></trkpt><trkpt lat="44.15030465499343" lon="4.01364468161686"><ele>188.0</ele><time>2026-04-03T09:59:16Z</time></trkpt><trkpt lat="44.15041121785058" lon="4.013701018624127"><ele>188.0</ele><time>2026-04-03T09:59:17Z</time></trkpt><trkpt lat="44.15053715291733" lon="4.013717465910325"><ele>188.0</ele><time>2026-04-03T09:59:18Z</time></trkpt><trkpt lat="44.150682546974984" lon="4.01374213432888"><ele>188.0</ele><time>2026-04-03T09:59:19Z</time></trkpt><trkpt lat="44.15081970670038" lon="4.013797412227912"><ele>188.0</ele><time>2026-04-03T09:59:20Z</time></trkpt><trkpt lat="44.150924268744994" lon="4.013949308382867"><ele>189.0</ele><time>2026-04-03T09:59:21Z</time></trkpt><trkpt lat="44.15105804487171" lon="4.014102704575255"><ele>190.0</ele><time>2026-04-03T09:59:22Z</time></trkpt><trkpt lat="44.15120052152974" lon="4.014268691038379"><ele>191.0</ele><time>2026-04-03T09:59:23Z</time></trkpt><trkpt lat="44.151357962182615" lon="4.014467667363413"><ele>191.0</ele><time>2026-04-03T09:59:24Z</time></trkpt><trkpt lat="44.15147310190573" lon="4.014655696367308"><ele>191.0</ele><time>2026-04-03T09:59:25Z</time></trkpt><trkpt lat="44.15159650738137" lon="4.01483344126564"><ele>191.0</ele><time>2026-04-03T09:59:26Z</time></trkpt><trkpt lat="44.151682546194046" lon="4.015024172448049"><ele>188.25</ele><time>2026-04-03T09:59:27Z</time></trkpt><trkpt lat="44.15178436358138" lon="4.015183151064619"><ele>185.5</ele><time>2026-04-03T09:59:28Z</time></trkpt><trkpt lat="44.15187047374871" lon="4.015347234265752"><ele>182.75</ele><time>2026-04-03T09:59:29Z</time></trkpt><trkpt lat="44.151970731097165" lon="4.015497872544285"><ele>180.0</ele><time>2026-04-03T09:59:30Z</time></trkpt><trkpt lat="44.15207246892382" lon="4.01562927331074"><ele>180.0</ele><time>2026-04-03T09:59:31Z</time></trkpt><trkpt lat="44.15221342269745" lon="4.015715708338543"><ele>180.0</ele><time>2026-04-03T09:59:32Z</time></trkpt><trkpt lat="44.15240452557136" lon="4.015777404928559"><ele>180.0</ele><time>2026-04-03T09:59:33Z</time></trkpt><trkpt lat="44.15261274796535" lon="4.015866969791379"><ele>174.0</ele><time>2026-04-03T09:59:34Z</time></trkpt><trkpt lat="44.15282764878685" lon="4.015979037332539"><ele>168.0</ele><time>2026-04-03T09:59:35Z</time></trkpt><trkpt lat="44.153044751330945" lon="4.01608445763009"><ele>167.0</ele><time>2026-04-03T09:59:36Z</time></trkpt><trkpt lat="44.15324402896962" lon="4.0161859286678245"><ele>166.0</ele><time>2026-04-03T09:59:37Z</time></trkpt><trkpt lat="44.153426031820224" lon="4.016278739518505"><ele>165.0</ele><time>2026-04-03T09:59:38Z</time></trkpt><trkpt lat="44.15359794624171" lon="4.016363038417993"><ele>165.0</ele><time>2026-04-03T09:59:39Z</time></trkpt><trkpt lat="44.15375723957052" lon="4.016458100570186"><ele>165.0</ele><time>2026-04-03T09:59:40Z</time></trkpt><trkpt lat="44.15390376585334" lon="4.0165672084204385"><ele>165.0</ele><time>2026-04-03T09:59:41Z</time></trkpt><trkpt lat="44.15404318240553" lon="4.016696232369244"><ele>165.66666666666666</ele><time>2026-04-03T09:59:42Z</time></trkpt><trkpt lat="44.15417124638794" lon="4.016870283779674"><ele>166.33333333333331</ele><time>2026-04-03T09:59:43.001Z</time></trkpt><trkpt lat="44.154298616326464" lon="4.017056111044673"><ele>167.0</ele><time>2026-04-03T09:59:44.001Z</time></trkpt><trkpt lat="44.154397872615384" lon="4.017239223453385"><ele>167.0</ele><time>2026-04-03T09:59:45Z</time></trkpt><trkpt lat="44.154499596724676" lon="4.017406470829102"><ele>167.0</ele><time>2026-04-03T09:59:46Z</time></trkpt><trkpt lat="44.154593353535816" lon="4.0176160041054985"><ele>167.0</ele><time>2026-04-03T09:59:47Z</time></trkpt><trkpt lat="44.15471634730793" lon="4.01784924776988"><ele>167.66666666666666</ele><time>2026-04-03T09:59:48Z</time></trkpt><trkpt lat="44.15483899709129" lon="4.018081919722016"><ele>168.33333333333334</ele><time>2026-04-03T09:59:49.001Z</time></trkpt><trkpt lat="44.15491920971194" lon="4.01832001224525"><ele>169.0</ele><time>2026-04-03T09:59:50.001Z</time></trkpt><trkpt lat="44.154976182962834" lon="4.0185463726686335"><ele>169.0</ele><time>2026-04-03T09:59:51.001Z</time></trkpt><trkpt lat="44.155009223516224" lon="4.018755555471109"><ele>169.0</ele><time>2026-04-03T09:59:52Z</time></trkpt><trkpt lat="44.15503413308043" lon="4.018946430810208"><ele>169.0</ele><time>2026-04-03T09:59:53Z</time></trkpt><trkpt lat="44.15506507947549" lon="4.019121029842802"><ele>169.0</ele><time>2026-04-03T09:59:54Z</time></trkpt><trkpt lat="44.155092355883134" lon="4.019348290331447"><ele>169.33333333333334</ele><time>2026-04-03T09:59:55.001Z</time></trkpt><trkpt lat="44.15511947738406" lon="4.019622686569123"><ele>169.66666666666666</ele><time>2026-04-03T09:59:56.001Z</time></trkpt><trkpt lat="44.15515512066385" lon="4.019903663900797"><ele>170.0</ele><time>2026-04-03T09:59:57.001Z</time></trkpt><trkpt lat="44.15520000280721" lon="4.020178631626119"><ele>170.0</ele><time>2026-04-03T09:59:58.001Z</time></trkpt><trkpt lat="44.15523157293127" lon="4.020424345825869"><ele>170.0</ele><time>2026-04-03T09:59:59.001Z</time></trkpt><trkpt lat="44.15526197837581" lon="4.02063864726415"><ele>170.0</ele><time>2026-04-03T10:00:00.001Z</time></trkpt><trkpt lat="44.155293786910356" lon="4.020843571383524"><ele>171.75</ele><time>2026-04-03T10:00:01.001Z</time></trkpt><trkpt lat="44.15531973807291" lon="4.021048730142927"><ele>173.5</ele><time>2026-04-03T10:00:02.001Z</time></trkpt><trkpt lat="44.155330575513545" lon="4.021238275882989"><ele>175.25</ele><time>2026-04-03T10:00:03.001Z</time></trkpt><trkpt lat="44.15536757916454" lon="4.021409053713082"><ele>177.0</ele><time>2026-04-03T10:00:04.001Z</time></trkpt><trkpt lat="44.15538508511994" lon="4.021597095032271"><ele>179.33333333333334</ele><time>2026-04-03T10:00:05.001Z</time></trkpt><trkpt lat="44.15541219115526" lon="4.021824088080919"><ele>181.66666666666669</ele><time>2026-04-03T10:00:06.001Z</time></trkpt><trkpt lat="44.15544142094924" lon="4.0220670747153076"><ele>184.0</ele><time>2026-04-03T10:00:07.001Z</time></trkpt><trkpt lat="44.15547369580879" lon="4.022294611918371"><ele>183.66666666666669</ele><time>2026-04-03T10:00:08.001Z</time></trkpt><trkpt lat="44.155485635436314" lon="4.022519814250257"><ele>183.33333333333334</ele><time>2026-04-03T10:00:09.001Z</time></trkpt><trkpt lat="44.15552481622123" lon="4.022732969274924"><ele>183.0</ele><time>2026-04-03T10:00:10.001Z</time></trkpt><trkpt lat="44.15553813130562" lon="4.022916239991514"><ele>183.0</ele><time>2026-04-03T10:00:11.001Z</time></trkpt><trkpt lat="44.155558282472285" lon="4.023081110399496"><ele>183.0</ele><time>2026-04-03T10:00:12.001Z</time></trkpt><trkpt lat="44.155581488133436" lon="4.023263868729701"><ele>183.0</ele><time>2026-04-03T10:00:13.001Z</time></trkpt><trkpt lat="44.15561692783025" lon="4.023473219914697"><ele>183.0</ele><time>2026-04-03T10:00:14.001Z</time></trkpt><trkpt lat="44.15563067383666" lon="4.023705440027362"><ele>183.5</ele><time>2026-04-03T10:00:15.001Z</time></trkpt><trkpt lat="44.1556733482325" lon="4.023921929149977"><ele>184.0</ele><time>2026-04-03T10:00:16.001Z</time></trkpt><trkpt lat="44.155695646209445" lon="4.02411008966243"><ele>184.5</ele><time>2026-04-03T10:00:17.001Z</time></trkpt><trkpt lat="44.15571317026995" lon="4.024276838960077"><ele>185.0</ele><time>2026-04-03T10:00:18.001Z</time></trkpt><trkpt lat="44.15573690673643" lon="4.0244138652781185"><ele>180.4</ele><time>2026-04-03T10:00:19.001Z</time></trkpt><trkpt lat="44.15573978526213" lon="4.024544209254012"><ele>175.8</ele><time>2026-04-03T10:00:20.001Z</time></trkpt><trkpt lat="44.15575387608499" lon="4.024645581959048"><ele>171.2</ele><time>2026-04-03T10:00:21.001Z</time></trkpt><trkpt lat="44.15576921095546" lon="4.02475590502045"><ele>166.6</ele><time>2026-04-03T10:00:23.001Z</time></trkpt><trkpt lat="44.15590489143847" lon="4.024681163045112"><ele>162.0</ele><time>2026-04-03T10:00:24.001Z</time></trkpt><trkpt lat="44.15596870842388" lon="4.024655272976525"><ele>162.0</ele><time>2026-04-03T10:00:27.001Z</time></trkpt><trkpt lat="44.156063439082104" lon="4.024603525667501"><ele>162.0</ele><time>2026-04-03T10:00:29.001Z</time></trkpt><trkpt lat="44.156147134397045" lon="4.024576445361463"><ele>162.0</ele><time>2026-04-03T10:00:30Z</time></trkpt><trkpt lat="44.15622288073817" lon="4.024538750169145"><ele>162.0</ele><time>2026-04-03T10:00:31Z</time></trkpt><trkpt lat="44.15632124056682" lon="4.024501571932872"><ele>162.0</ele><time>2026-04-03T10:00:32Z</time></trkpt><trkpt lat="44.15642930164671" lon="4.024488433694107"><ele>162.0</ele><time>2026-04-03T10:00:33Z</time></trkpt><trkpt lat="44.156532709590444" lon="4.024458730091716"><ele>162.0</ele><time>2026-04-03T10:00:34Z</time></trkpt><trkpt lat="44.156633227225235" lon="4.024419039302558"><ele>162.0</ele><time>2026-04-03T10:00:35Z</time></trkpt><trkpt lat="44.15672886931099" lon="4.024406407249052"><ele>162.0</ele><time>2026-04-03T10:00:36Z</time></trkpt><trkpt lat="44.156810040558554" lon="4.024393487781056"><ele>162.0</ele><time>2026-04-03T10:00:37Z</time></trkpt><trkpt lat="44.156874197151645" lon="4.024384438321133"><ele>161.6</ele><time>2026-04-03T10:00:38Z</time></trkpt><trkpt lat="44.15696527988187" lon="4.024376820161498"><ele>161.2</ele><time>2026-04-03T10:00:40Z</time></trkpt><trkpt lat="44.15705739801016" lon="4.024363670841146"><ele>160.8</ele><time>2026-04-03T10:00:42Z</time></trkpt><trkpt lat="44.15716744824211" lon="4.0243493901052485"><ele>160.4</ele><time>2026-04-03T10:00:44Z</time></trkpt><trkpt lat="44.157286604386194" lon="4.024364288887709"><ele>160.0</ele><time>2026-04-03T10:00:46Z</time></trkpt><trkpt lat="44.15739227032015" lon="4.024364063744561"><ele>160.0</ele><time>2026-04-03T10:00:48Z</time></trkpt><trkpt lat="44.157463201609815" lon="4.024231695104392"><ele>160.0</ele><time>2026-04-03T10:00:51Z</time></trkpt><trkpt lat="44.157441180628034" lon="4.024129456433586"><ele>160.0</ele><time>2026-04-03T10:00:53Z</time></trkpt><trkpt lat="44.15742357974848" lon="4.024045098324484"><ele>160.0</ele><time>2026-04-03T10:00:55Z</time></trkpt><trkpt lat="44.15730587491556" lon="4.024105341118983"><ele>160.0</ele><time>2026-04-03T10:00:59Z</time></trkpt><trkpt lat="44.15724917543994" lon="4.02419468775715"><ele>160.0</ele><time>2026-04-03T10:01:01Z</time></trkpt><trkpt lat="44.15719839670369" lon="4.024286416364431"><ele>160.0</ele><time>2026-04-03T10:01:03Z</time></trkpt><trkpt lat="44.157180781148085" lon="4.02439272064586"><ele>160.0</ele><time>2026-04-03T10:01:06Z</time></trkpt><trkpt lat="44.15715204701766" lon="4.024486175521033"><ele>160.0</ele><time>2026-04-03T10:01:09Z</time></trkpt><trkpt lat="44.15709141502688" lon="4.024510571198584"><ele>160.0</ele><time>2026-04-03T10:02:35Z</time></trkpt><trkpt lat="44.15702707089292" lon="4.024495347086694"><ele>160.0</ele><time>2026-04-03T10:02:53Z</time></trkpt><trkpt lat="44.156972729482966" lon="4.024433578167548"><ele>160.0</ele><time>2026-04-03T10:03:17Z</time></trkpt><trkpt lat="44.15691054914396" lon="4.0243966063815435"><ele>160.0</ele><time>2026-04-03T10:03:25Z</time></trkpt><trkpt lat="44.156844289429586" lon="4.024395678813535"><ele>160.0</ele><time>2026-04-03T10:16:32Z</time></trkpt><trkpt lat="44.1568832926729" lon="4.024318985020881"><ele>160.0</ele><time>2026-04-03T10:27:17Z</time></trkpt><trkpt lat="44.156916906364955" lon="4.02440283481337"><ele>160.0</ele><time>2026-04-03T10:30:42Z</time></trkpt><trkpt lat="44.15696465414578" lon="4.024460153818197"><ele>160.0</ele><time>2026-04-03T10:31:24Z</time></trkpt><trkpt lat="44.15701902501127" lon="4.024515500556569"><ele>160.0</ele><time>2026-04-03T10:31:39Z</time></trkpt><trkpt lat="44.15707210716995" lon="4.024584888073554"><ele>160.0</ele><time>2026-04-03T10:31:47Z</time></trkpt><trkpt lat="44.15713788279659" lon="4.024581604702542"><ele>160.0</ele><time>2026-04-03T10:31:55Z</time></trkpt><trkpt lat="44.15716926366905" lon="4.024505382415076"><ele>160.0</ele><time>2026-04-03T10:32:00Z</time></trkpt><trkpt lat="44.15722736194177" lon="4.024543620396581"><ele>160.0</ele><time>2026-04-03T10:34:15Z</time></trkpt><trkpt lat="44.15719556172542" lon="4.024437682071387"><ele>160.0</ele><time>2026-04-03T10:34:36Z</time></trkpt><trkpt lat="44.15719853653245" lon="4.024346112589256"><ele>160.0</ele><time>2026-04-03T10:34:38Z</time></trkpt><trkpt lat="44.157222775152306" lon="4.024238763217018"><ele>160.0</ele><time>2026-04-03T10:34:40Z</time></trkpt><trkpt lat="44.15727440474289" lon="4.024146882540439"><ele>160.0</ele><time>2026-04-03T10:34:42Z</time></trkpt><trkpt lat="44.15734349653409" lon="4.024080015719454"><ele>161.6</ele><time>2026-04-03T10:34:44Z</time></trkpt><trkpt lat="44.157412436718445" lon="4.024054082686775"><ele>163.2</ele><time>2026-04-03T10:34:47Z</time></trkpt><trkpt lat="44.15743869981658" lon="4.024177852266508"><ele>164.8</ele><time>2026-04-03T10:34:50Z</time></trkpt><trkpt lat="44.157415554788365" lon="4.0243154738461815"><ele>166.4</ele><time>2026-04-03T10:34:52Z</time></trkpt><trkpt lat="44.157429344284665" lon="4.024444086308794"><ele>168.0</ele><time>2026-04-03T10:34:54Z</time></trkpt><trkpt lat="44.157424428914574" lon="4.024593134002737"><ele>168.0</ele><time>2026-04-03T10:35:19Z</time></trkpt><trkpt lat="44.15741676147097" lon="4.024707371954854"><ele>168.0</ele><time>2026-04-03T10:35:20Z</time></trkpt><trkpt lat="44.15740475206756" lon="4.024842581765873"><ele>168.0</ele><time>2026-04-03T10:35:21Z</time></trkpt><trkpt lat="44.15739080301435" lon="4.02498962278864"><ele>168.0</ele><time>2026-04-03T10:35:22Z</time></trkpt><trkpt lat="44.157384454604674" lon="4.025137988850395"><ele>168.0</ele><time>2026-04-03T10:35:23Z</time></trkpt><trkpt lat="44.15738913227431" lon="4.025292403465945"><ele>167.60000000000002</ele><time>2026-04-03T10:35:24Z</time></trkpt><trkpt lat="44.15737814826172" lon="4.025450002848396"><ele>167.20000000000002</ele><time>2026-04-03T10:35:25Z</time></trkpt><trkpt lat="44.15739906098019" lon="4.025617695154256"><ele>166.8</ele><time>2026-04-03T10:35:26Z</time></trkpt><trkpt lat="44.157416180927065" lon="4.025763981064476"><ele>166.4</ele><time>2026-04-03T10:35:27Z</time></trkpt><trkpt lat="44.157456853185685" lon="4.025894237940446"><ele>166.0</ele><time>2026-04-03T10:35:28Z</time></trkpt><trkpt lat="44.157524570336896" lon="4.026019746610596"><ele>165.0</ele><time>2026-04-03T10:35:29Z</time></trkpt><trkpt lat="44.15759498147902" lon="4.026164542480285"><ele>164.0</ele><time>2026-04-03T10:35:30Z</time></trkpt><trkpt lat="44.15767989439098" lon="4.026322383664093"><ele>163.0</ele><time>2026-04-03T10:35:31Z</time></trkpt><trkpt lat="44.15776527916742" lon="4.026490291938241"><ele>162.0</ele><time>2026-04-03T10:35:32Z</time></trkpt><trkpt lat="44.157841948276335" lon="4.026656510146075"><ele>161.25</ele><time>2026-04-03T10:35:33Z</time></trkpt><trkpt lat="44.157914150225" lon="4.026819921593064"><ele>160.5</ele><time>2026-04-03T10:35:34Z</time></trkpt><trkpt lat="44.15798784555005" lon="4.026979454490692"><ele>159.75</ele><time>2026-04-03T10:35:35Z</time></trkpt><trkpt lat="44.15804403685355" lon="4.027147106665784"><ele>159.0</ele><time>2026-04-03T10:35:36Z</time></trkpt><trkpt lat="44.15812508292236" lon="4.027271461175183"><ele>159.0</ele><time>2026-04-03T10:35:37Z</time></trkpt><trkpt lat="44.15818981046834" lon="4.027389295098512"><ele>159.0</ele><time>2026-04-03T10:35:38Z</time></trkpt><trkpt lat="44.15825334310219" lon="4.027480142331018"><ele>159.0</ele><time>2026-04-03T10:35:39Z</time></trkpt><trkpt lat="44.1582869365653" lon="4.027560136046436"><ele>159.0</ele><time>2026-04-03T10:35:40Z</time></trkpt><trkpt lat="44.15831600362625" lon="4.027658054871479"><ele>159.0</ele><time>2026-04-03T10:35:42Z</time></trkpt><trkpt lat="44.15819228472367" lon="4.027816269125667"><ele>158.5</ele><time>2026-04-03T10:35:44Z</time></trkpt><trkpt lat="44.15813001181184" lon="4.027956971961591"><ele>158.0</ele><time>2026-04-03T10:35:45Z</time></trkpt><trkpt lat="44.1580396621056" lon="4.028085376372674"><ele>157.5</ele><time>2026-04-03T10:35:46Z</time></trkpt><trkpt lat="44.15796258367358" lon="4.028220262273568"><ele>157.0</ele><time>2026-04-03T10:35:47Z</time></trkpt><trkpt lat="44.15789275387584" lon="4.02833962812414"><ele>156.75</ele><time>2026-04-03T10:35:48Z</time></trkpt><trkpt lat="44.157822151963195" lon="4.028466040487855"><ele>156.5</ele><time>2026-04-03T10:35:49Z</time></trkpt><trkpt lat="44.157747947651764" lon="4.02859578324012"><ele>156.25</ele><time>2026-04-03T10:35:50Z</time></trkpt><trkpt lat="44.15767136399279" lon="4.028725850576688"><ele>156.0</ele><time>2026-04-03T10:35:51Z</time></trkpt><trkpt lat="44.15761418789468" lon="4.028832370115315"><ele>156.0</ele><time>2026-04-03T10:35:52Z</time></trkpt><trkpt lat="44.15758122987284" lon="4.02892295298226"><ele>156.0</ele><time>2026-04-03T10:35:53Z</time></trkpt><trkpt lat="44.157586016001076" lon="4.029022107280412"><ele>156.0</ele><time>2026-04-03T10:35:54Z</time></trkpt><trkpt lat="44.15761518972496" lon="4.029121208513797"><ele>156.0</ele><time>2026-04-03T10:35:55Z</time></trkpt><trkpt lat="44.157658377224685" lon="4.029240584048094"><ele>156.0</ele><time>2026-04-03T10:35:56Z</time></trkpt><trkpt lat="44.15766778176328" lon="4.029372287328946"><ele>156.0</ele><time>2026-04-03T10:35:57Z</time></trkpt><trkpt lat="44.15768714334749" lon="4.029503738084564"><ele>156.0</ele><time>2026-04-03T10:35:58Z</time></trkpt><trkpt lat="44.15772109523244" lon="4.029622226440251"><ele>156.0</ele><time>2026-04-03T10:35:59Z</time></trkpt><trkpt lat="44.157740207968274" lon="4.029734912849447"><ele>156.0</ele><time>2026-04-03T10:36:00Z</time></trkpt><trkpt lat="44.157780828369255" lon="4.029834481321381"><ele>156.0</ele><time>2026-04-03T10:36:01Z</time></trkpt><trkpt lat="44.15779327748801" lon="4.0299314223556495"><ele>156.0</ele><time>2026-04-03T10:36:02Z</time></trkpt><trkpt lat="44.15779345378969" lon="4.030019277167879"><ele>156.0</ele><time>2026-04-03T10:36:03Z</time></trkpt><trkpt lat="44.15780247531965" lon="4.030109025824109"><ele>156.16666666666666</ele><time>2026-04-03T10:36:04Z</time></trkpt><trkpt lat="44.15781014147469" lon="4.030198786899091"><ele>156.33333333333334</ele><time>2026-04-03T10:36:05Z</time></trkpt><trkpt lat="44.157803803554394" lon="4.030302318714295"><ele>156.5</ele><time>2026-04-03T10:36:06Z</time></trkpt><trkpt lat="44.157798753002574" lon="4.030416594351121"><ele>156.66666666666669</ele><time>2026-04-03T10:36:07Z</time></trkpt><trkpt lat="44.15779031582362" lon="4.030545968590526"><ele>156.83333333333334</ele><time>2026-04-03T10:36:08Z</time></trkpt><trkpt lat="44.15777910447438" lon="4.030690606825624"><ele>157.0</ele><time>2026-04-03T10:36:09Z</time></trkpt><trkpt lat="44.15776233688039" lon="4.03082644813633"><ele>157.0</ele><time>2026-04-03T10:36:10Z</time></trkpt><trkpt lat="44.157754235092035" lon="4.030950411194664"><ele>157.0</ele><time>2026-04-03T10:36:11Z</time></trkpt><trkpt lat="44.157747854738425" lon="4.031063690519185"><ele>157.0</ele><time>2026-04-03T10:36:12Z</time></trkpt><trkpt lat="44.15772162829633" lon="4.031169504889064"><ele>157.0</ele><time>2026-04-03T10:36:13Z</time></trkpt><trkpt lat="44.15771787289245" lon="4.031271142461222"><ele>157.0</ele><time>2026-04-03T10:36:14Z</time></trkpt><trkpt lat="44.15772909123386" lon="4.031365368713564"><ele>157.0</ele><time>2026-04-03T10:36:15Z</time></trkpt><trkpt lat="44.15770974009677" lon="4.031465009549335"><ele>157.0</ele><time>2026-04-03T10:36:16Z</time></trkpt><trkpt lat="44.15769913584926" lon="4.031572618818671"><ele>157.0</ele><time>2026-04-03T10:36:17Z</time></trkpt><trkpt lat="44.15768935785416" lon="4.031664049543368"><ele>157.0</ele><time>2026-04-03T10:36:18Z</time></trkpt><trkpt lat="44.157661931176136" lon="4.031819671610506"><ele>157.0</ele><time>2026-04-03T10:36:20Z</time></trkpt><trkpt lat="44.157649561098864" lon="4.031941747294826"><ele>157.0</ele><time>2026-04-03T10:36:21Z</time></trkpt><trkpt lat="44.15760696090894" lon="4.032080356433209"><ele>156.75</ele><time>2026-04-03T10:36:22Z</time></trkpt><trkpt lat="44.157552258621614" lon="4.03221311964408"><ele>156.5</ele><time>2026-04-03T10:36:23Z</time></trkpt><trkpt lat="44.15746567766348" lon="4.032354060284606"><ele>156.25</ele><time>2026-04-03T10:36:24Z</time></trkpt><trkpt lat="44.15738838277365" lon="4.032520106934235"><ele>156.0</ele><time>2026-04-03T10:36:25Z</time></trkpt><trkpt lat="44.157317910302964" lon="4.032698313510299"><ele>155.25</ele><time>2026-04-03T10:36:26Z</time></trkpt><trkpt lat="44.15725363688119" lon="4.032876722837535"><ele>154.5</ele><time>2026-04-03T10:36:27Z</time></trkpt><trkpt lat="44.15721028676168" lon="4.0330619278072595"><ele>153.75</ele><time>2026-04-03T10:36:28Z</time></trkpt><trkpt lat="44.15716915986619" lon="4.033249250121218"><ele>153.0</ele><time>2026-04-03T10:36:29Z</time></trkpt><trkpt lat="44.15714844433344" lon="4.033441404114787"><ele>152.75</ele><time>2026-04-03T10:36:30Z</time></trkpt><trkpt lat="44.157123625937636" lon="4.0336356765463"><ele>152.5</ele><time>2026-04-03T10:36:31Z</time></trkpt><trkpt lat="44.15708432959348" lon="4.033825947300468"><ele>152.25</ele><time>2026-04-03T10:36:32Z</time></trkpt><trkpt lat="44.15705471513412" lon="4.0340049770429225"><ele>152.0</ele><time>2026-04-03T10:36:33Z</time></trkpt><trkpt lat="44.15701462185946" lon="4.034178564414643"><ele>152.0</ele><time>2026-04-03T10:36:34Z</time></trkpt><trkpt lat="44.15695632747414" lon="4.034339579089014"><ele>152.0</ele><time>2026-04-03T10:36:35Z</time></trkpt><trkpt lat="44.15692783703302" lon="4.034529944795639"><ele>152.0</ele><time>2026-04-03T10:36:36Z</time></trkpt><trkpt lat="44.15689182176464" lon="4.03472510509256"><ele>152.0</ele><time>2026-04-03T10:36:37Z</time></trkpt><trkpt lat="44.15686325082965" lon="4.03493581236159"><ele>152.0</ele><time>2026-04-03T10:36:38Z</time></trkpt><trkpt lat="44.15683123324869" lon="4.035148619357453"><ele>152.0</ele><time>2026-04-03T10:36:39Z</time></trkpt><trkpt lat="44.15680143366551" lon="4.035354683244976"><ele>152.0</ele><time>2026-04-03T10:36:40Z</time></trkpt><trkpt lat="44.156772255461945" lon="4.035572448218759"><ele>152.0</ele><time>2026-04-03T10:36:41Z</time></trkpt><trkpt lat="44.156742216831056" lon="4.035784166334897"><ele>152.0</ele><time>2026-04-03T10:36:42Z</time></trkpt><trkpt lat="44.15671080932421" lon="4.035997359072175"><ele>152.0</ele><time>2026-04-03T10:36:43Z</time></trkpt><trkpt lat="44.15668065237743" lon="4.036187552642225"><ele>152.0</ele><time>2026-04-03T10:36:44Z</time></trkpt><trkpt lat="44.156626571369934" lon="4.036357097900236"><ele>152.0</ele><time>2026-04-03T10:36:45Z</time></trkpt><trkpt lat="44.1565867811003" lon="4.036526631998345"><ele>152.0</ele><time>2026-04-03T10:36:46Z</time></trkpt><trkpt lat="44.15655207162313" lon="4.03670339901477"><ele>152.0</ele><time>2026-04-03T10:36:47Z</time></trkpt><trkpt lat="44.15650295208846" lon="4.0368768272560915"><ele>152.0</ele><time>2026-04-03T10:36:48Z</time></trkpt><trkpt lat="44.15645106171982" lon="4.037036715098984"><ele>152.0</ele><time>2026-04-03T10:36:49Z</time></trkpt><trkpt lat="44.15637519875612" lon="4.0371684454589865"><ele>152.0</ele><time>2026-04-03T10:36:50Z</time></trkpt><trkpt lat="44.15625204217473" lon="4.037253290600603"><ele>152.0</ele><time>2026-04-03T10:36:51Z</time></trkpt><trkpt lat="44.15616576765024" lon="4.037398775182758"><ele>151.66666666666666</ele><time>2026-04-03T10:36:52Z</time></trkpt><trkpt lat="44.156080076631156" lon="4.0375702504327915"><ele>151.33333333333334</ele><time>2026-04-03T10:36:53Z</time></trkpt><trkpt lat="44.15601261238478" lon="4.037763303980191"><ele>151.0</ele><time>2026-04-03T10:36:54Z</time></trkpt><trkpt lat="44.15594647931519" lon="4.037958836449179"><ele>151.0</ele><time>2026-04-03T10:36:55Z</time></trkpt><trkpt lat="44.15589050586566" lon="4.0381403316409905"><ele>151.0</ele><time>2026-04-03T10:36:56Z</time></trkpt><trkpt lat="44.155843763185" lon="4.0382880317548375"><ele>151.0</ele><time>2026-04-03T10:36:57Z</time></trkpt><trkpt lat="44.155804383174626" lon="4.038410925275935"><ele>151.0</ele><time>2026-04-03T10:36:58Z</time></trkpt><trkpt lat="44.1557686493995" lon="4.038492485042966"><ele>151.0</ele><time>2026-04-03T10:36:59Z</time></trkpt><trkpt lat="44.1556605403394" lon="4.038513742528353"><ele>151.4</ele><time>2026-04-03T10:37:03Z</time></trkpt><trkpt lat="44.15558946788975" lon="4.038464309132375"><ele>151.8</ele><time>2026-04-03T10:37:04Z</time></trkpt><trkpt lat="44.15548684810722" lon="4.038431820261457"><ele>152.20000000000002</ele><time>2026-04-03T10:37:05Z</time></trkpt><trkpt lat="44.1553729877037" lon="4.038373386980251"><ele>152.6</ele><time>2026-04-03T10:37:06Z</time></trkpt><trkpt lat="44.15525226710644" lon="4.038318877125139"><ele>153.0</ele><time>2026-04-03T10:37:07Z</time></trkpt><trkpt lat="44.155125179996055" lon="4.038257211739453"><ele>153.5</ele><time>2026-04-03T10:37:08Z</time></trkpt><trkpt lat="44.15499856090971" lon="4.038193786496901"><ele>154.0</ele><time>2026-04-03T10:37:09Z</time></trkpt><trkpt lat="44.15486720052156" lon="4.038133461249868"><ele>154.5</ele><time>2026-04-03T10:37:10Z</time></trkpt><trkpt lat="44.15473684652227" lon="4.0380749410679595"><ele>155.0</ele><time>2026-04-03T10:37:11Z</time></trkpt><trkpt lat="44.15460693893224" lon="4.0380252042717055"><ele>158.25</ele><time>2026-04-03T10:37:12Z</time></trkpt><trkpt lat="44.15448065635622" lon="4.038002574680531"><ele>161.5</ele><time>2026-04-03T10:37:13Z</time></trkpt><trkpt lat="44.15436325589891" lon="4.038022970081377"><ele>164.75</ele><time>2026-04-03T10:37:14Z</time></trkpt><trkpt lat="44.15425885191862" lon="4.038081507319027"><ele>168.0</ele><time>2026-04-03T10:37:15Z</time></trkpt><trkpt lat="44.1541716098575" lon="4.038191630474245"><ele>169.0</ele><time>2026-04-03T10:37:16Z</time></trkpt><trkpt lat="44.154094385707225" lon="4.0383623986962105"><ele>170.0</ele><time>2026-04-03T10:37:17Z</time></trkpt><trkpt lat="44.1540170176233" lon="4.038565546275195"><ele>171.0</ele><time>2026-04-03T10:37:18Z</time></trkpt><trkpt lat="44.15392692176402" lon="4.038785910809364"><ele>171.0</ele><time>2026-04-03T10:37:19Z</time></trkpt><trkpt lat="44.15383855718494" lon="4.038991611915345"><ele>171.0</ele><time>2026-04-03T10:37:20Z</time></trkpt><trkpt lat="44.15374015965512" lon="4.039216378985011"><ele>171.0</ele><time>2026-04-03T10:37:21Z</time></trkpt><trkpt lat="44.1536354863418" lon="4.0394436932162625"><ele>167.66666666666666</ele><time>2026-04-03T10:37:22Z</time></trkpt><trkpt lat="44.15352590622515" lon="4.039677314159197"><ele>164.33333333333331</ele><time>2026-04-03T10:37:23Z</time></trkpt><trkpt lat="44.1534185901294" lon="4.03992518019542"><ele>161.0</ele><time>2026-04-03T10:37:24Z</time></trkpt><trkpt lat="44.15330944481389" lon="4.04019644457058"><ele>165.66666666666666</ele><time>2026-04-03T10:37:25Z</time></trkpt><trkpt lat="44.15319296301332" lon="4.040453960008259"><ele>170.33333333333334</ele><time>2026-04-03T10:37:26Z</time></trkpt><trkpt lat="44.15307631041533" lon="4.0407155226127855"><ele>175.0</ele><time>2026-04-03T10:37:27Z</time></trkpt><trkpt lat="44.15296418339168" lon="4.040971156909959"><ele>176.33333333333334</ele><time>2026-04-03T10:37:28Z</time></trkpt><trkpt lat="44.152853739134116" lon="4.041229585773279"><ele>177.66666666666666</ele><time>2026-04-03T10:37:29Z</time></trkpt><trkpt lat="44.15274517399993" lon="4.041481947839006"><ele>179.0</ele><time>2026-04-03T10:37:30Z</time></trkpt><trkpt lat="44.152634037281224" lon="4.041738877365598"><ele>175.33333333333331</ele><time>2026-04-03T10:37:31Z</time></trkpt><trkpt lat="44.15252417646835" lon="4.041989851884992"><ele>171.66666666666666</ele><time>2026-04-03T10:37:32Z</time></trkpt><trkpt lat="44.15241346136507" lon="4.042240458315859"><ele>168.0</ele><time>2026-04-03T10:37:33Z</time></trkpt><trkpt lat="44.15230301650582" lon="4.042486775302851"><ele>167.33333333333334</ele><time>2026-04-03T10:37:34Z</time></trkpt><trkpt lat="44.15218797612267" lon="4.042740284682123"><ele>166.66666666666669</ele><time>2026-04-03T10:37:35Z</time></trkpt><trkpt lat="44.152074240672015" lon="4.0429946559178465"><ele>166.0</ele><time>2026-04-03T10:37:36Z</time></trkpt><trkpt lat="44.15195827691619" lon="4.043251960275463"><ele>160.5</ele><time>2026-04-03T10:37:37Z</time></trkpt><trkpt lat="44.151840742275894" lon="4.04351771387929"><ele>155.0</ele><time>2026-04-03T10:37:38Z</time></trkpt><trkpt lat="44.151711617430806" lon="4.043810826413143"><ele>155.0</ele><time>2026-04-03T10:37:39Z</time></trkpt><trkpt lat="44.15157485741252" lon="4.044114470827315"><ele>155.0</ele><time>2026-04-03T10:37:40Z</time></trkpt><trkpt lat="44.15144775207726" lon="4.044390654785205"><ele>159.0</ele><time>2026-04-03T10:37:41Z</time></trkpt><trkpt lat="44.1513232478155" lon="4.044662876264492"><ele>163.0</ele><time>2026-04-03T10:37:42Z</time></trkpt><trkpt lat="44.151204015527384" lon="4.044927182483054"><ele>164.33333333333334</ele><time>2026-04-03T10:37:43Z</time></trkpt><trkpt lat="44.15109715980341" lon="4.045174600737774"><ele>165.66666666666666</ele><time>2026-04-03T10:37:44Z</time></trkpt><trkpt lat="44.15098950504898" lon="4.045426699603631"><ele>167.0</ele><time>2026-04-03T10:37:45Z</time></trkpt><trkpt lat="44.15087704639883" lon="4.045686458368879"><ele>166.5</ele><time>2026-04-03T10:37:46Z</time></trkpt><trkpt lat="44.15074982700905" lon="4.045976701052677"><ele>166.0</ele><time>2026-04-03T10:37:47Z</time></trkpt><trkpt lat="44.15063205723524" lon="4.046257547907019"><ele>164.33333333333334</ele><time>2026-04-03T10:37:48Z</time></trkpt><trkpt lat="44.150527727084636" lon="4.046505823756462"><ele>162.66666666666666</ele><time>2026-04-03T10:37:49Z</time></trkpt><trkpt lat="44.15041876978492" lon="4.0467646734300295"><ele>161.0</ele><time>2026-04-03T10:37:50Z</time></trkpt><trkpt lat="44.150305875077585" lon="4.047037483078016"><ele>160.0</ele><time>2026-04-03T10:37:51Z</time></trkpt><trkpt lat="44.150185459139045" lon="4.047316789871441"><ele>159.0</ele><time>2026-04-03T10:37:52Z</time></trkpt><trkpt lat="44.150059862260555" lon="4.047602188715131"><ele>159.0</ele><time>2026-04-03T10:37:53Z</time></trkpt><trkpt lat="44.14994077456039" lon="4.047866060669444"><ele>159.0</ele><time>2026-04-03T10:37:54Z</time></trkpt><trkpt lat="44.14982551892343" lon="4.04812050875922"><ele>159.0</ele><time>2026-04-03T10:37:55Z</time></trkpt><trkpt lat="44.1497138609768" lon="4.048367489095951"><ele>163.33333333333334</ele><time>2026-04-03T10:37:56Z</time></trkpt><trkpt lat="44.149601774855114" lon="4.04862315569905"><ele>167.66666666666669</ele><time>2026-04-03T10:37:57Z</time></trkpt><trkpt lat="44.149492144022055" lon="4.048880288883544"><ele>172.0</ele><time>2026-04-03T10:37:58Z</time></trkpt><trkpt lat="44.14939142766045" lon="4.049120895539202"><ele>171.33333333333334</ele><time>2026-04-03T10:37:59Z</time></trkpt><trkpt lat="44.14926311029277" lon="4.049329374168565"><ele>170.66666666666666</ele><time>2026-04-03T10:38:00Z</time></trkpt><trkpt lat="44.14924511132105" lon="4.049622886462647"><ele>170.0</ele><time>2026-04-03T10:38:01Z</time></trkpt><trkpt lat="44.149216895333836" lon="4.049875892073711"><ele>170.33333333333331</ele><time>2026-04-03T10:38:02Z</time></trkpt><trkpt lat="44.14920796676599" lon="4.05016676325191"><ele>170.66666666666666</ele><time>2026-04-03T10:38:03Z</time></trkpt><trkpt lat="44.14921613262728" lon="4.050474559473534"><ele>171.0</ele><time>2026-04-03T10:38:04Z</time></trkpt><trkpt lat="44.1492361428562" lon="4.050776029258758"><ele>171.66666666666666</ele><time>2026-04-03T10:38:05Z</time></trkpt><trkpt lat="44.14927014424193" lon="4.051079475647398"><ele>172.33333333333331</ele><time>2026-04-03T10:38:06Z</time></trkpt><trkpt lat="44.14932282081881" lon="4.051381314409642"><ele>173.0</ele><time>2026-04-03T10:38:07Z</time></trkpt><trkpt lat="44.1494052960906" lon="4.051664862970662"><ele>175.0</ele><time>2026-04-03T10:38:08Z</time></trkpt><trkpt lat="44.14949980024852" lon="4.051936400965918"><ele>177.0</ele><time>2026-04-03T10:38:09Z</time></trkpt><trkpt lat="44.14960161546471" lon="4.05220831479257"><ele>179.0</ele><time>2026-04-03T10:38:10Z</time></trkpt><trkpt lat="44.149710600308694" lon="4.052462909263062"><ele>183.0</ele><time>2026-04-03T10:38:11Z</time></trkpt><trkpt lat="44.14982291830323" lon="4.0527043993317875"><ele>187.0</ele><time>2026-04-03T10:38:12Z</time></trkpt><trkpt lat="44.14993278777646" lon="4.052924500965447"><ele>191.0</ele><time>2026-04-03T10:38:13Z</time></trkpt><trkpt lat="44.150037911985756" lon="4.053101050267999"><ele>185.33333333333331</ele><time>2026-04-03T10:38:14Z</time></trkpt><trkpt lat="44.1501516716128" lon="4.05324712097849"><ele>179.66666666666666</ele><time>2026-04-03T10:38:15Z</time></trkpt><trkpt lat="44.15029448015758" lon="4.05332861067804"><ele>174.0</ele><time>2026-04-03T10:38:16Z</time></trkpt><trkpt lat="44.15045740358305" lon="4.053390427852884"><ele>174.0</ele><time>2026-04-03T10:38:17Z</time></trkpt><trkpt lat="44.15062681653297" lon="4.053435749640734"><ele>174.0</ele><time>2026-04-03T10:38:18Z</time></trkpt><trkpt lat="44.150794492679786" lon="4.053499821761168"><ele>174.0</ele><time>2026-04-03T10:38:19Z</time></trkpt><trkpt lat="44.15095442364625" lon="4.053559912731714"><ele>170.33333333333334</ele><time>2026-04-03T10:38:20Z</time></trkpt><trkpt lat="44.15110624090948" lon="4.053622530308204"><ele>166.66666666666669</ele><time>2026-04-03T10:38:21Z</time></trkpt><trkpt lat="44.151246344292495" lon="4.053691107284326"><ele>163.0</ele><time>2026-04-03T10:38:22Z</time></trkpt><trkpt lat="44.151372754945875" lon="4.05378432150164"><ele>163.0</ele><time>2026-04-03T10:38:23Z</time></trkpt><trkpt lat="44.15146830652854" lon="4.0539143674442375"><ele>163.0</ele><time>2026-04-03T10:38:24Z</time></trkpt><trkpt lat="44.15152811206591" lon="4.0540692643733545"><ele>163.0</ele><time>2026-04-03T10:38:25Z</time></trkpt><trkpt lat="44.151565778800176" lon="4.054258104948747"><ele>163.0</ele><time>2026-04-03T10:38:26Z</time></trkpt><trkpt lat="44.15160739492576" lon="4.054471867857065"><ele>162.25</ele><time>2026-04-03T10:38:27Z</time></trkpt><trkpt lat="44.1516507689921" lon="4.054665258909749"><ele>161.5</ele><time>2026-04-03T10:38:28Z</time></trkpt><trkpt lat="44.151702879802016" lon="4.054832615817761"><ele>160.75</ele><time>2026-04-03T10:38:29Z</time></trkpt><trkpt lat="44.1517639545074" lon="4.054969691658946"><ele>160.0</ele><time>2026-04-03T10:38:30Z</time></trkpt><trkpt lat="44.151822173715146" lon="4.055101825204049"><ele>163.0</ele><time>2026-04-03T10:38:31Z</time></trkpt><trkpt lat="44.1518685457665" lon="4.055236890463628"><ele>166.0</ele><time>2026-04-03T10:38:32Z</time></trkpt><trkpt lat="44.15190788981165" lon="4.0553698327884495"><ele>169.0</ele><time>2026-04-03T10:38:33Z</time></trkpt><trkpt lat="44.151943417810294" lon="4.055527170921679"><ele>172.0</ele><time>2026-04-03T10:38:34Z</time></trkpt><trkpt lat="44.151964711737165" lon="4.055702640770732"><ele>173.25</ele><time>2026-04-03T10:38:35Z</time></trkpt><trkpt lat="44.1519772964927" lon="4.055881658490514"><ele>174.5</ele><time>2026-04-03T10:38:36Z</time></trkpt><trkpt lat="44.15198712624952" lon="4.056050486851327"><ele>175.75</ele><time>2026-04-03T10:38:37Z</time></trkpt><trkpt lat="44.15199367969676" lon="4.056207778151595"><ele>177.0</ele><time>2026-04-03T10:38:38Z</time></trkpt><trkpt lat="44.1519880813415" lon="4.05635021131765"><ele>177.0</ele><time>2026-04-03T10:38:39Z</time></trkpt><trkpt lat="44.15196147771762" lon="4.056473567293636"><ele>177.0</ele><time>2026-04-03T10:38:40Z</time></trkpt><trkpt lat="44.15193256822719" lon="4.056578884013092"><ele>177.0</ele><time>2026-04-03T10:38:41Z</time></trkpt><trkpt lat="44.15190229634178" lon="4.056674565399629"><ele>177.0</ele><time>2026-04-03T10:38:42Z</time></trkpt><trkpt lat="44.151870161046915" lon="4.056814460516448"><ele>177.0</ele><time>2026-04-03T10:38:44Z</time></trkpt><trkpt lat="44.151845310056785" lon="4.056961422960167"><ele>174.5</ele><time>2026-04-03T10:38:46Z</time></trkpt><trkpt lat="44.151795247066524" lon="4.057068720388973"><ele>172.0</ele><time>2026-04-03T10:38:47Z</time></trkpt><trkpt lat="44.151704183496214" lon="4.057206010211552"><ele>169.5</ele><time>2026-04-03T10:38:48Z</time></trkpt><trkpt lat="44.1515820032048" lon="4.05734752421314"><ele>167.0</ele><time>2026-04-03T10:38:49Z</time></trkpt><trkpt lat="44.15143906630935" lon="4.057477371589531"><ele>165.33333333333331</ele><time>2026-04-03T10:38:50Z</time></trkpt><trkpt lat="44.15128269247452" lon="4.057583846700216"><ele>163.66666666666666</ele><time>2026-04-03T10:38:51Z</time></trkpt><trkpt lat="44.15110031579336" lon="4.057654818160662"><ele>162.0</ele><time>2026-04-03T10:38:52Z</time></trkpt><trkpt lat="44.15091636965748" lon="4.057693742590368"><ele>162.0</ele><time>2026-04-03T10:38:53Z</time></trkpt><trkpt lat="44.15073013115409" lon="4.0576893967779135"><ele>162.0</ele><time>2026-04-03T10:38:54Z</time></trkpt><trkpt lat="44.15054922862093" lon="4.057644807415711"><ele>162.0</ele><time>2026-04-03T10:38:55Z</time></trkpt><trkpt lat="44.15037150596971" lon="4.057585549464365"><ele>161.33333333333334</ele><time>2026-04-03T10:38:56Z</time></trkpt><trkpt lat="44.150211402582045" lon="4.057520966104041"><ele>160.66666666666669</ele><time>2026-04-03T10:38:57Z</time></trkpt><trkpt lat="44.15006138513421" lon="4.0574550250717065"><ele>160.0</ele><time>2026-04-03T10:38:58Z</time></trkpt><trkpt lat="44.14991516473617" lon="4.0573874479985195"><ele>158.0</ele><time>2026-04-03T10:38:59Z</time></trkpt><trkpt lat="44.149762995850516" lon="4.057322744321884"><ele>156.0</ele><time>2026-04-03T10:39:00Z</time></trkpt><trkpt lat="44.14961141606703" lon="4.057275050615332"><ele>154.0</ele><time>2026-04-03T10:39:01Z</time></trkpt><trkpt lat="44.149457560265574" lon="4.057254183034101"><ele>154.0</ele><time>2026-04-03T10:39:02Z</time></trkpt><trkpt lat="44.149294822567576" lon="4.057254844107803"><ele>154.0</ele><time>2026-04-03T10:39:03Z</time></trkpt><trkpt lat="44.1491321821123" lon="4.057287861442815"><ele>154.0</ele><time>2026-04-03T10:39:04Z</time></trkpt><trkpt lat="44.14897147813665" lon="4.057366016937925"><ele>153.0</ele><time>2026-04-03T10:39:05Z</time></trkpt><trkpt lat="44.14882089583035" lon="4.057459332073378"><ele>152.0</ele><time>2026-04-03T10:39:06Z</time></trkpt><trkpt lat="44.14867625863954" lon="4.057549695244803"><ele>151.0</ele><time>2026-04-03T10:39:07Z</time></trkpt><trkpt lat="44.148533562403884" lon="4.057645351441514"><ele>151.0</ele><time>2026-04-03T10:39:08Z</time></trkpt><trkpt lat="44.14839690712473" lon="4.057743724515376"><ele>151.0</ele><time>2026-04-03T10:39:09Z</time></trkpt><trkpt lat="44.148265952713764" lon="4.057836880080766"><ele>151.0</ele><time>2026-04-03T10:39:10Z</time></trkpt><trkpt lat="44.1481468915082" lon="4.057923824889217"><ele>151.0</ele><time>2026-04-03T10:39:11Z</time></trkpt><trkpt lat="44.14803579578573" lon="4.058002952101928"><ele>152.0</ele><time>2026-04-03T10:39:12Z</time></trkpt><trkpt lat="44.147919457956036" lon="4.058066689472405"><ele>153.0</ele><time>2026-04-03T10:39:13Z</time></trkpt><trkpt lat="44.14781328225622" lon="4.0581026224830286"><ele>154.0</ele><time>2026-04-03T10:39:14Z</time></trkpt><trkpt lat="44.147721574233735" lon="4.058191464040523"><ele>155.0</ele><time>2026-04-03T10:39:15Z</time></trkpt><trkpt lat="44.14763193156672" lon="4.0583086752904265"><ele>155.0</ele><time>2026-04-03T10:39:16Z</time></trkpt><trkpt lat="44.14751758982935" lon="4.058479002924491"><ele>155.0</ele><time>2026-04-03T10:39:17Z</time></trkpt><trkpt lat="44.14740719663394" lon="4.058649103559818"><ele>155.0</ele><time>2026-04-03T10:39:18Z</time></trkpt><trkpt lat="44.147297156678746" lon="4.058831047000095"><ele>163.0</ele><time>2026-04-03T10:39:19Z</time></trkpt><trkpt lat="44.147202919660984" lon="4.059031111813378"><ele>171.0</ele><time>2026-04-03T10:39:20Z</time></trkpt><trkpt lat="44.14711235115537" lon="4.059239561645325"><ele>179.0</ele><time>2026-04-03T10:39:21Z</time></trkpt><trkpt lat="44.14702084466176" lon="4.059444363120009"><ele>179.0</ele><time>2026-04-03T10:39:22Z</time></trkpt><trkpt lat="44.14692993040309" lon="4.059643191791701"><ele>179.0</ele><time>2026-04-03T10:39:23Z</time></trkpt><trkpt lat="44.14684223663018" lon="4.0598489807645"><ele>179.0</ele><time>2026-04-03T10:39:24Z</time></trkpt><trkpt lat="44.14675532198212" lon="4.060057530134188"><ele>172.66666666666666</ele><time>2026-04-03T10:39:25Z</time></trkpt><trkpt lat="44.14666293898805" lon="4.0602587423759"><ele>166.33333333333334</ele><time>2026-04-03T10:39:26Z</time></trkpt><trkpt lat="44.14657237640697" lon="4.060462030757334"><ele>160.0</ele><time>2026-04-03T10:39:27Z</time></trkpt><trkpt lat="44.146480372147224" lon="4.060655837558407"><ele>165.66666666666669</ele><time>2026-04-03T10:39:28Z</time></trkpt><trkpt lat="44.14636816646239" lon="4.060825416334965"><ele>171.33333333333334</ele><time>2026-04-03T10:39:29Z</time></trkpt><trkpt lat="44.14623707904623" lon="4.061006837734749"><ele>177.0</ele><time>2026-04-03T10:39:30Z</time></trkpt><trkpt lat="44.14609428270672" lon="4.06118363745064"><ele>177.0</ele><time>2026-04-03T10:39:31Z</time></trkpt><trkpt lat="44.145945467263815" lon="4.061361926527714"><ele>177.0</ele><time>2026-04-03T10:39:32Z</time></trkpt><trkpt lat="44.1457913111892" lon="4.061545697124949"><ele>177.0</ele><time>2026-04-03T10:39:33Z</time></trkpt><trkpt lat="44.14563620003548" lon="4.061725084679412"><ele>175.66666666666666</ele><time>2026-04-03T10:39:34Z</time></trkpt><trkpt lat="44.145481589121076" lon="4.0619044759423915"><ele>174.33333333333331</ele><time>2026-04-03T10:39:35Z</time></trkpt><trkpt lat="44.14531957007141" lon="4.062093961888476"><ele>173.0</ele><time>2026-04-03T10:39:36Z</time></trkpt><trkpt lat="44.14515975125259" lon="4.062299252842858"><ele>174.0</ele><time>2026-04-03T10:39:37Z</time></trkpt><trkpt lat="44.144990206308854" lon="4.062492015752712"><ele>175.0</ele><time>2026-04-03T10:39:38Z</time></trkpt><trkpt lat="44.14481312115326" lon="4.062693627762265"><ele>176.0</ele><time>2026-04-03T10:39:39Z</time></trkpt><trkpt lat="44.14464945430528" lon="4.062894028108635"><ele>176.0</ele><time>2026-04-03T10:39:40Z</time></trkpt><trkpt lat="44.14448527038868" lon="4.063083004432313"><ele>176.0</ele><time>2026-04-03T10:39:41Z</time></trkpt><trkpt lat="44.144325737079754" lon="4.063258767745337"><ele>176.0</ele><time>2026-04-03T10:39:42Z</time></trkpt><trkpt lat="44.14418008847214" lon="4.063466021899356"><ele>175.5</ele><time>2026-04-03T10:39:43Z</time></trkpt><trkpt lat="44.14404509748691" lon="4.063716750201576"><ele>175.0</ele><time>2026-04-03T10:39:44Z</time></trkpt><trkpt lat="44.14392757911322" lon="4.063987390116639"><ele>173.33333333333334</ele><time>2026-04-03T10:39:45Z</time></trkpt><trkpt lat="44.14381701300136" lon="4.064256132392956"><ele>171.66666666666666</ele><time>2026-04-03T10:39:46Z</time></trkpt><trkpt lat="44.1437193378453" lon="4.064510109197594"><ele>170.0</ele><time>2026-04-03T10:39:47Z</time></trkpt><trkpt lat="44.14362000038001" lon="4.06474718544147"><ele>167.66666666666666</ele><time>2026-04-03T10:39:48Z</time></trkpt><trkpt lat="44.14353405064389" lon="4.064984042797507"><ele>165.33333333333334</ele><time>2026-04-03T10:39:49Z</time></trkpt><trkpt lat="44.14348109355072" lon="4.065246107873279"><ele>163.0</ele><time>2026-04-03T10:39:50Z</time></trkpt><trkpt lat="44.14346912349557" lon="4.065533457631115"><ele>161.66666666666669</ele><time>2026-04-03T10:39:51Z</time></trkpt><trkpt lat="44.14348242010058" lon="4.065818316625208"><ele>160.33333333333334</ele><time>2026-04-03T10:39:52Z</time></trkpt><trkpt lat="44.14350328327599" lon="4.066074725349203"><ele>159.0</ele><time>2026-04-03T10:39:53Z</time></trkpt><trkpt lat="44.14352194227198" lon="4.066310450148015"><ele>159.0</ele><time>2026-04-03T10:39:54Z</time></trkpt><trkpt lat="44.14355242288053" lon="4.06651392432536"><ele>159.0</ele><time>2026-04-03T10:39:55Z</time></trkpt><trkpt lat="44.14360981328472" lon="4.066699539022995"><ele>159.0</ele><time>2026-04-03T10:39:56Z</time></trkpt><trkpt lat="44.14366564747792" lon="4.066848828531338"><ele>159.0</ele><time>2026-04-03T10:39:57Z</time></trkpt><trkpt lat="44.14369639085671" lon="4.066986238348182"><ele>159.5</ele><time>2026-04-03T10:39:58Z</time></trkpt><trkpt lat="44.14375636022748" lon="4.067101704719629"><ele>160.0</ele><time>2026-04-03T10:39:59Z</time></trkpt><trkpt lat="44.14380374357893" lon="4.067243830664653"><ele>160.5</ele><time>2026-04-03T10:40:00Z</time></trkpt><trkpt lat="44.143856171700904" lon="4.067419702822657"><ele>161.0</ele><time>2026-04-03T10:40:01Z</time></trkpt><trkpt lat="44.14392778018172" lon="4.067618871720865"><ele>164.0</ele><time>2026-04-03T10:40:02Z</time></trkpt><trkpt lat="44.14400168157608" lon="4.067819480296961"><ele>167.0</ele><time>2026-04-03T10:40:03Z</time></trkpt><trkpt lat="44.14408802457251" lon="4.068021590112075"><ele>170.0</ele><time>2026-04-03T10:40:04Z</time></trkpt><trkpt lat="44.14419956683122" lon="4.068232465238386"><ele>164.0</ele><time>2026-04-03T10:40:05Z</time></trkpt><trkpt lat="44.14433975978919" lon="4.068424426188234"><ele>158.0</ele><time>2026-04-03T10:40:06Z</time></trkpt><trkpt lat="44.14447653425047" lon="4.06862957047216"><ele>152.0</ele><time>2026-04-03T10:40:07Z</time></trkpt><trkpt lat="44.14461169728263" lon="4.068853163930511"><ele>159.0</ele><time>2026-04-03T10:40:08Z</time></trkpt><trkpt lat="44.144702958893575" lon="4.069138525791127"><ele>166.0</ele><time>2026-04-03T10:40:09Z</time></trkpt><trkpt lat="44.144811740447764" lon="4.069427233619978"><ele>159.33333333333334</ele><time>2026-04-03T10:40:10Z</time></trkpt><trkpt lat="44.14488980302669" lon="4.0697048544165995"><ele>152.66666666666666</ele><time>2026-04-03T10:40:11Z</time></trkpt><trkpt lat="44.14495742365217" lon="4.069948860655418"><ele>146.0</ele><time>2026-04-03T10:40:12Z</time></trkpt><trkpt lat="44.14502118620373" lon="4.070177616340872"><ele>146.0</ele><time>2026-04-03T10:40:13Z</time></trkpt><trkpt lat="44.14508508183592" lon="4.0703971621373"><ele>146.0</ele><time>2026-04-03T10:40:14Z</time></trkpt><trkpt lat="44.145141032164304" lon="4.070604995053575"><ele>146.0</ele><time>2026-04-03T10:40:15Z</time></trkpt><trkpt lat="44.145178386745464" lon="4.070839833008835"><ele>149.0</ele><time>2026-04-03T10:40:16Z</time></trkpt><trkpt lat="44.14522388898084" lon="4.071098423367934"><ele>152.0</ele><time>2026-04-03T10:40:17Z</time></trkpt><trkpt lat="44.14521242999498" lon="4.071354722810422"><ele>155.0</ele><time>2026-04-03T10:40:18Z</time></trkpt><trkpt lat="44.14519372392454" lon="4.071589168011121"><ele>153.66666666666666</ele><time>2026-04-03T10:40:19Z</time></trkpt><trkpt lat="44.145155361520054" lon="4.071803041171715"><ele>152.33333333333334</ele><time>2026-04-03T10:40:20Z</time></trkpt><trkpt lat="44.14510627000902" lon="4.072002505745167"><ele>151.0</ele><time>2026-04-03T10:40:21Z</time></trkpt><trkpt lat="44.14507676133515" lon="4.072210813535046"><ele>151.0</ele><time>2026-04-03T10:40:22Z</time></trkpt><trkpt lat="44.1450527766269" lon="4.072418901444752"><ele>151.0</ele><time>2026-04-03T10:40:23Z</time></trkpt><trkpt lat="44.14503132056333" lon="4.072616421219686"><ele>151.0</ele><time>2026-04-03T10:40:24Z</time></trkpt><trkpt lat="44.14501213030124" lon="4.072798812872436"><ele>151.0</ele><time>2026-04-03T10:40:25Z</time></trkpt><trkpt lat="44.14495025003713" lon="4.072960680246648"><ele>151.5</ele><time>2026-04-03T10:40:26Z</time></trkpt><trkpt lat="44.14487590900204" lon="4.073097523112047"><ele>152.0</ele><time>2026-04-03T10:40:27Z</time></trkpt><trkpt lat="44.144790717631885" lon="4.073238145568199"><ele>152.5</ele><time>2026-04-03T10:40:28Z</time></trkpt><trkpt lat="44.144700178140155" lon="4.073398627998891"><ele>153.0</ele><time>2026-04-03T10:40:29Z</time></trkpt><trkpt lat="44.14459140597744" lon="4.0735575291750585"><ele>153.0</ele><time>2026-04-03T10:40:30Z</time></trkpt><trkpt lat="44.14449850047831" lon="4.073695657826862"><ele>153.0</ele><time>2026-04-03T10:40:31Z</time></trkpt><trkpt lat="44.14441348777805" lon="4.073825915045108"><ele>153.0</ele><time>2026-04-03T10:40:32Z</time></trkpt><trkpt lat="44.14433225010499" lon="4.073944360157192"><ele>153.0</ele><time>2026-04-03T10:40:33Z</time></trkpt><trkpt lat="44.14424026612039" lon="4.074063258846175"><ele>153.0</ele><time>2026-04-03T10:40:34Z</time></trkpt><trkpt lat="44.14413236386943" lon="4.074149571415924"><ele>153.0</ele><time>2026-04-03T10:40:35Z</time></trkpt><trkpt lat="44.14401876121982" lon="4.074228288852718"><ele>153.0</ele><time>2026-04-03T10:40:36Z</time></trkpt><trkpt lat="44.143878311513475" lon="4.074325092943736"><ele>153.0</ele><time>2026-04-03T10:40:37Z</time></trkpt><trkpt lat="44.14371826454887" lon="4.074386763072081"><ele>153.0</ele><time>2026-04-03T10:40:38Z</time></trkpt><trkpt lat="44.143586387779294" lon="4.074441639599442"><ele>153.0</ele><time>2026-04-03T10:40:39Z</time></trkpt><trkpt lat="44.14347780354608" lon="4.074491850845357"><ele>153.0</ele><time>2026-04-03T10:40:40Z</time></trkpt><trkpt lat="44.14338895503123" lon="4.074535560616309"><ele>153.0</ele><time>2026-04-03T10:40:41Z</time></trkpt><trkpt lat="44.143311356184945" lon="4.074573714120219"><ele>153.0</ele><time>2026-04-03T10:40:42Z</time></trkpt><trkpt lat="44.143245560362345" lon="4.074605966779944"><ele>156.2</ele><time>2026-04-03T10:40:43Z</time></trkpt><trkpt lat="44.14317520976285" lon="4.074636969048812"><ele>159.4</ele><time>2026-04-03T10:40:45Z</time></trkpt><trkpt lat="44.143108846853856" lon="4.074669780551215"><ele>162.6</ele><time>2026-04-03T10:40:48Z</time></trkpt><trkpt lat="44.143007463286274" lon="4.074724801569908"><ele>165.79999999999998</ele><time>2026-04-03T10:40:49Z</time></trkpt><trkpt lat="44.142864557565574" lon="4.074794848756928"><ele>169.0</ele><time>2026-04-03T10:40:50Z</time></trkpt><trkpt lat="44.142709902257515" lon="4.074845448155366"><ele>169.0</ele><time>2026-04-03T10:40:51Z</time></trkpt><trkpt lat="44.142582505469846" lon="4.074912786154928"><ele>169.0</ele><time>2026-04-03T10:40:52Z</time></trkpt><trkpt lat="44.142472888134314" lon="4.074943719739706"><ele>169.0</ele><time>2026-04-03T10:40:53Z</time></trkpt><trkpt lat="44.142369644615854" lon="4.074941278882573"><ele>169.0</ele><time>2026-04-03T10:40:54Z</time></trkpt><trkpt lat="44.142257436008634" lon="4.074897491198309"><ele>169.75</ele><time>2026-04-03T10:40:55Z</time></trkpt><trkpt lat="44.14213803226955" lon="4.074838048116327"><ele>170.5</ele><time>2026-04-03T10:40:56Z</time></trkpt><trkpt lat="44.14202118598508" lon="4.074770700144637"><ele>171.25</ele><time>2026-04-03T10:40:57Z</time></trkpt><trkpt lat="44.141903726382786" lon="4.074707205739311"><ele>172.0</ele><time>2026-04-03T10:40:58Z</time></trkpt><trkpt lat="44.14178804980674" lon="4.074654733363227"><ele>172.0</ele><time>2026-04-03T10:40:59Z</time></trkpt><trkpt lat="44.1416722947612" lon="4.074598790949666"><ele>172.0</ele><time>2026-04-03T10:41:00Z</time></trkpt><trkpt lat="44.14155468137136" lon="4.074540120856923"><ele>172.0</ele><time>2026-04-03T10:41:01Z</time></trkpt><trkpt lat="44.14143315389373" lon="4.074480873795781"><ele>172.0</ele><time>2026-04-03T10:41:02Z</time></trkpt><trkpt lat="44.141313365849626" lon="4.0744288257956365"><ele>172.75</ele><time>2026-04-03T10:41:03Z</time></trkpt><trkpt lat="44.14119690774194" lon="4.0743893518470315"><ele>173.5</ele><time>2026-04-03T10:41:04Z</time></trkpt><trkpt lat="44.14107718215178" lon="4.074381234227394"><ele>174.25</ele><time>2026-04-03T10:41:05Z</time></trkpt><trkpt lat="44.14095533644183" lon="4.07438557991457"><ele>175.0</ele><time>2026-04-03T10:41:06Z</time></trkpt><trkpt lat="44.14082806722682" lon="4.074402676722004"><ele>174.0</ele><time>2026-04-03T10:41:07Z</time></trkpt><trkpt lat="44.14068906142641" lon="4.0744005905058245"><ele>173.0</ele><time>2026-04-03T10:41:08Z</time></trkpt><trkpt lat="44.1405225770419" lon="4.074357031997562"><ele>172.0</ele><time>2026-04-03T10:41:09Z</time></trkpt><trkpt lat="44.14033153613226" lon="4.074306208913317"><ele>172.0</ele><time>2026-04-03T10:41:10Z</time></trkpt><trkpt lat="44.14014549680952" lon="4.074274121219331"><ele>172.0</ele><time>2026-04-03T10:41:11Z</time></trkpt><trkpt lat="44.13995940824316" lon="4.074255380110702"><ele>172.0</ele><time>2026-04-03T10:41:12Z</time></trkpt><trkpt lat="44.13974747491798" lon="4.074215542041601"><ele>171.0</ele><time>2026-04-03T10:41:13Z</time></trkpt><trkpt lat="44.13952513103411" lon="4.0741757285350975"><ele>170.0</ele><time>2026-04-03T10:41:14Z</time></trkpt><trkpt lat="44.139317709949864" lon="4.074137695762246"><ele>169.0</ele><time>2026-04-03T10:41:15Z</time></trkpt><trkpt lat="44.139127091843804" lon="4.074102135433457"><ele>169.0</ele><time>2026-04-03T10:41:16Z</time></trkpt><trkpt lat="44.13893609776414" lon="4.074071891259825"><ele>169.0</ele><time>2026-04-03T10:41:17Z</time></trkpt><trkpt lat="44.138754111604165" lon="4.074044040744843"><ele>169.0</ele><time>2026-04-03T10:41:18Z</time></trkpt><trkpt lat="44.138587394633404" lon="4.074019712980907"><ele>169.0</ele><time>2026-04-03T10:41:19Z</time></trkpt><trkpt lat="44.13843153931367" lon="4.073990082720984"><ele>169.0</ele><time>2026-04-03T10:41:20Z</time></trkpt><trkpt lat="44.138297599642655" lon="4.073967986461411"><ele>169.0</ele><time>2026-04-03T10:41:21Z</time></trkpt><trkpt lat="44.13817879150188" lon="4.07389797174931"><ele>169.0</ele><time>2026-04-03T10:41:22Z</time></trkpt><trkpt lat="44.13810111364187" lon="4.073782649634017"><ele>166.6</ele><time>2026-04-03T10:41:23Z</time></trkpt><trkpt lat="44.13802895456233" lon="4.073715539151112"><ele>164.2</ele><time>2026-04-03T10:41:24Z</time></trkpt><trkpt lat="44.13794703143568" lon="4.073741383410947"><ele>161.79999999999998</ele><time>2026-04-03T10:41:25Z</time></trkpt><trkpt lat="44.137863532662635" lon="4.073846048334603"><ele>159.39999999999998</ele><time>2026-04-03T10:41:26Z</time></trkpt><trkpt lat="44.13775383835642" lon="4.073958496670185"><ele>157.0</ele><time>2026-04-03T10:41:27Z</time></trkpt><trkpt lat="44.13759606657577" lon="4.073993855722079"><ele>157.0</ele><time>2026-04-03T10:41:28Z</time></trkpt><trkpt lat="44.13740057773361" lon="4.073990758028232"><ele>157.0</ele><time>2026-04-03T10:41:29Z</time></trkpt><trkpt lat="44.13720822498851" lon="4.0740082491260035"><ele>157.0</ele><time>2026-04-03T10:41:30Z</time></trkpt><trkpt lat="44.13703339799448" lon="4.07405623201054"><ele>154.33333333333334</ele><time>2026-04-03T10:41:31Z</time></trkpt><trkpt lat="44.13686704034998" lon="4.074108041849319"><ele>151.66666666666666</ele><time>2026-04-03T10:41:32Z</time></trkpt><trkpt lat="44.13670287139589" lon="4.074168561851385"><ele>149.0</ele><time>2026-04-03T10:41:33Z</time></trkpt><trkpt lat="44.13654208498974" lon="4.074249832027615"><ele>148.66666666666666</ele><time>2026-04-03T10:41:34Z</time></trkpt><trkpt lat="44.13639075650901" lon="4.074340759006981"><ele>148.33333333333334</ele><time>2026-04-03T10:41:35Z</time></trkpt><trkpt lat="44.13624412187957" lon="4.074428740953648"><ele>148.0</ele><time>2026-04-03T10:41:36Z</time></trkpt><trkpt lat="44.13609416956464" lon="4.074523148637804"><ele>148.0</ele><time>2026-04-03T10:41:37Z</time></trkpt><trkpt lat="44.13594442347904" lon="4.0746380653832155"><ele>148.0</ele><time>2026-04-03T10:41:38Z</time></trkpt><trkpt lat="44.13581171525662" lon="4.074759159020901"><ele>148.0</ele><time>2026-04-03T10:41:39Z</time></trkpt><trkpt lat="44.13569172723589" lon="4.074876379454139"><ele>145.5</ele><time>2026-04-03T10:41:40Z</time></trkpt><trkpt lat="44.13557897107552" lon="4.07499143861095"><ele>143.0</ele><time>2026-04-03T10:41:41Z</time></trkpt><trkpt lat="44.135479847195775" lon="4.075093916315854"><ele>140.5</ele><time>2026-04-03T10:41:42Z</time></trkpt><trkpt lat="44.135386670823266" lon="4.075187264265386"><ele>138.0</ele><time>2026-04-03T10:41:43Z</time></trkpt><trkpt lat="44.13528216070197" lon="4.075252463859042"><ele>138.0</ele><time>2026-04-03T10:41:44Z</time></trkpt><trkpt lat="44.13521200903104" lon="4.075397889406034"><ele>138.0</ele><time>2026-04-03T10:41:45Z</time></trkpt><trkpt lat="44.13515034150948" lon="4.075570820329212"><ele>138.0</ele><time>2026-04-03T10:41:46Z</time></trkpt><trkpt lat="44.13503025772272" lon="4.075747636408645"><ele>138.0</ele><time>2026-04-03T10:41:47Z</time></trkpt><trkpt lat="44.13492210670565" lon="4.0759221446332905"><ele>137.5</ele><time>2026-04-03T10:41:48Z</time></trkpt><trkpt lat="44.13483195171585" lon="4.076090634719854"><ele>137.0</ele><time>2026-04-03T10:41:49Z</time></trkpt><trkpt lat="44.13475348897135" lon="4.076249241455149"><ele>136.5</ele><time>2026-04-03T10:41:50Z</time></trkpt><trkpt lat="44.134683227398384" lon="4.0764012926138244"><ele>136.0</ele><time>2026-04-03T10:41:51Z</time></trkpt><trkpt lat="44.13461242914731" lon="4.076541353585514"><ele>135.8</ele><time>2026-04-03T10:41:52Z</time></trkpt><trkpt lat="44.13453892677032" lon="4.0766659365136135"><ele>135.6</ele><time>2026-04-03T10:41:53Z</time></trkpt><trkpt lat="44.13447409631153" lon="4.076774606591045"><ele>135.4</ele><time>2026-04-03T10:41:54Z</time></trkpt><trkpt lat="44.13442634548926" lon="4.076872683427124"><ele>135.2</ele><time>2026-04-03T10:41:55Z</time></trkpt><trkpt lat="44.134362381493695" lon="4.07690467355889"><ele>135.0</ele><time>2026-04-03T10:41:57Z</time></trkpt><trkpt lat="44.134242299392625" lon="4.0769255409344405"><ele>135.0</ele><time>2026-04-03T10:42:21Z</time></trkpt><trkpt lat="44.13416572711544" lon="4.076928849227464"><ele>135.0</ele><time>2026-04-03T10:42:22Z</time></trkpt><trkpt lat="44.13409143031459" lon="4.0767801811790285"><ele>135.0</ele><time>2026-04-03T10:42:23Z</time></trkpt><trkpt lat="44.133997723188045" lon="4.076683787018405"><ele>135.0</ele><time>2026-04-03T10:42:24Z</time></trkpt><trkpt lat="44.13388714885088" lon="4.076570282480727"><ele>135.25</ele><time>2026-04-03T10:42:25Z</time></trkpt><trkpt lat="44.13377770056778" lon="4.076449015239631"><ele>135.5</ele><time>2026-04-03T10:42:26Z</time></trkpt><trkpt lat="44.133677199436995" lon="4.076329487705357"><ele>135.75</ele><time>2026-04-03T10:42:27Z</time></trkpt><trkpt lat="44.13358017372118" lon="4.076208734158899"><ele>136.0</ele><time>2026-04-03T10:42:28Z</time></trkpt><trkpt lat="44.13348787181308" lon="4.076088075245627"><ele>136.0</ele><time>2026-04-03T10:42:29Z</time></trkpt><trkpt lat="44.133388995172574" lon="4.0759498184032115"><ele>136.0</ele><time>2026-04-03T10:42:30Z</time></trkpt><trkpt lat="44.13328551089655" lon="4.075801652917587"><ele>136.0</ele><time>2026-04-03T10:42:31Z</time></trkpt><trkpt lat="44.13317905065595" lon="4.075648390636466"><ele>136.0</ele><time>2026-04-03T10:42:32Z</time></trkpt><trkpt lat="44.13307592785956" lon="4.075491125447811"><ele>135.5</ele><time>2026-04-03T10:42:33Z</time></trkpt><trkpt lat="44.13297941565266" lon="4.075347820203692"><ele>135.0</ele><time>2026-04-03T10:42:34Z</time></trkpt><trkpt lat="44.132890037005545" lon="4.075213250642763"><ele>134.5</ele><time>2026-04-03T10:42:35Z</time></trkpt><trkpt lat="44.1328071962197" lon="4.075082774425084"><ele>134.0</ele><time>2026-04-03T10:42:36Z</time></trkpt><trkpt lat="44.13272720815122" lon="4.07495808202563"><ele>134.16666666666666</ele><time>2026-04-03T10:42:37Z</time></trkpt><trkpt lat="44.13265356449079" lon="4.074842398546987"><ele>134.33333333333331</ele><time>2026-04-03T10:42:38Z</time></trkpt><trkpt lat="44.132613224694886" lon="4.074720566774107"><ele>134.5</ele><time>2026-04-03T10:42:39Z</time></trkpt><trkpt lat="44.132614324487086" lon="4.074596958195706"><ele>134.66666666666666</ele><time>2026-04-03T10:42:40Z</time></trkpt><trkpt lat="44.13262238112601" lon="4.0744823643829955"><ele>134.83333333333334</ele><time>2026-04-03T10:42:41Z</time></trkpt><trkpt lat="44.13261686169033" lon="4.074384888349415"><ele>135.0</ele><time>2026-04-03T10:42:42Z</time></trkpt><trkpt lat="44.132680485419144" lon="4.074306218740337"><ele>135.0</ele><time>2026-04-03T10:42:43Z</time></trkpt><trkpt lat="44.132722865333285" lon="4.074215349635239"><ele>135.0</ele><time>2026-04-03T10:42:45Z</time></trkpt><trkpt lat="44.132603735701444" lon="4.07406002468846"><ele>135.0</ele><time>2026-04-03T10:42:46Z</time></trkpt><trkpt lat="44.132550272528206" lon="4.073978592163513"><ele>135.0</ele><time>2026-04-03T10:42:47Z</time></trkpt><trkpt lat="44.1324895839341" lon="4.073904910230739"><ele>135.0</ele><time>2026-04-03T10:42:48Z</time></trkpt><trkpt lat="44.13242627780605" lon="4.073885007356836"><ele>135.0</ele><time>2026-04-03T10:42:49Z</time></trkpt><trkpt lat="44.132332332934176" lon="4.0739652959191455"><ele>135.0</ele><time>2026-04-03T10:42:51Z</time></trkpt><trkpt lat="44.132275658743154" lon="4.074065529172041"><ele>135.0</ele><time>2026-04-03T10:42:53Z</time></trkpt><trkpt lat="44.132412474709305" lon="4.074238293635315"><ele>135.0</ele><time>2026-04-03T10:47:06Z</time></trkpt><trkpt lat="44.132547498594505" lon="4.074264492105387"><ele>135.0</ele><time>2026-04-03T10:47:08Z</time></trkpt><trkpt lat="44.132618990928016" lon="4.07430241642328"><ele>135.0</ele><time>2026-04-03T10:47:10Z</time></trkpt><trkpt lat="44.132574583734524" lon="4.074410504944032"><ele>135.0</ele><time>2026-04-03T10:47:22Z</time></trkpt><trkpt lat="44.13251643387672" lon="4.074459901952328"><ele>135.0</ele><time>2026-04-03T10:47:23Z</time></trkpt><trkpt lat="44.1324527581512" lon="4.074558211935621"><ele>135.0</ele><time>2026-04-03T10:47:25Z</time></trkpt><trkpt lat="44.13246792455002" lon="4.0746584347702"><ele>135.0</ele><time>2026-04-03T10:47:26Z</time></trkpt><trkpt lat="44.132538228230956" lon="4.074754936224778"><ele>135.0</ele><time>2026-04-03T10:47:27Z</time></trkpt><trkpt lat="44.132611801317466" lon="4.07486330067763"><ele>135.0</ele><time>2026-04-03T10:47:28Z</time></trkpt><trkpt lat="44.13269306400191" lon="4.074980415143052"><ele>135.0</ele><time>2026-04-03T10:47:29Z</time></trkpt><trkpt lat="44.13277575616024" lon="4.075101311460238"><ele>135.0</ele><time>2026-04-03T10:47:30Z</time></trkpt><trkpt lat="44.132866029839555" lon="4.075237462603979"><ele>134.75</ele><time>2026-04-03T10:47:31Z</time></trkpt><trkpt lat="44.13295652839238" lon="4.075377824086802"><ele>134.5</ele><time>2026-04-03T10:47:31.999Z</time></trkpt><trkpt lat="44.133038322733704" lon="4.075502190801189"><ele>134.25</ele><time>2026-04-03T10:47:33Z</time></trkpt><trkpt lat="44.133120169010134" lon="4.075625903102344"><ele>134.0</ele><time>2026-04-03T10:47:33.999Z</time></trkpt><trkpt lat="44.133199250364484" lon="4.075746135267649"><ele>134.5</ele><time>2026-04-03T10:47:34.999Z</time></trkpt><trkpt lat="44.13327849398469" lon="4.075862000311668"><ele>135.0</ele><time>2026-04-03T10:47:35.999Z</time></trkpt><trkpt lat="44.13335925625696" lon="4.075978976734392"><ele>135.5</ele><time>2026-04-03T10:47:36.999Z</time></trkpt><trkpt lat="44.13344271753099" lon="4.076090556798237"><ele>136.0</ele><time>2026-04-03T10:47:37.999Z</time></trkpt><trkpt lat="44.133526374120706" lon="4.076199472988065"><ele>136.0</ele><time>2026-04-03T10:47:38.999Z</time></trkpt><trkpt lat="44.13360818368746" lon="4.076308904189525"><ele>136.0</ele><time>2026-04-03T10:47:39.999Z</time></trkpt><trkpt lat="44.133689098964524" lon="4.076414354711377"><ele>136.0</ele><time>2026-04-03T10:47:40.999Z</time></trkpt><trkpt lat="44.13376977434714" lon="4.076513378020507"><ele>136.0</ele><time>2026-04-03T10:47:41.999Z</time></trkpt><trkpt lat="44.13384751329516" lon="4.076601965278522"><ele>136.0</ele><time>2026-04-03T10:47:42.999Z</time></trkpt><trkpt lat="44.133917236483725" lon="4.07668412418277"><ele>135.83333333333334</ele><time>2026-04-03T10:47:43.999Z</time></trkpt><trkpt lat="44.13397677194047" lon="4.076749030206526"><ele>135.66666666666669</ele><time>2026-04-03T10:47:44.999Z</time></trkpt><trkpt lat="44.134028347702575" lon="4.0768008758823315"><ele>135.5</ele><time>2026-04-03T10:47:45.999Z</time></trkpt><trkpt lat="44.134103824873314" lon="4.0768896644589745"><ele>135.33333333333334</ele><time>2026-04-03T10:47:47.999Z</time></trkpt><trkpt lat="44.13416817206054" lon="4.076956884332253"><ele>135.16666666666666</ele><time>2026-04-03T10:48:15Z</time></trkpt><trkpt lat="44.13423213458265" lon="4.077013983312846"><ele>135.0</ele><time>2026-04-03T10:48:17Z</time></trkpt><trkpt lat="44.134299251420444" lon="4.077091735355696"><ele>135.0</ele><time>2026-04-03T10:48:20Z</time></trkpt><trkpt lat="44.13431282670976" lon="4.0771780237012205"><ele>135.0</ele><time>2026-04-03T10:48:22Z</time></trkpt><trkpt lat="44.13425515412174" lon="4.077284223661799"><ele>135.0</ele><time>2026-04-03T10:48:24Z</time></trkpt><trkpt lat="44.13420462803384" lon="4.077362618001318"><ele>135.0</ele><time>2026-04-03T10:48:25Z</time></trkpt><trkpt lat="44.13415801309348" lon="4.07747285570331"><ele>135.0</ele><time>2026-04-03T10:48:26Z</time></trkpt><trkpt lat="44.13408991621959" lon="4.077632921914227"><ele>134.0</ele><time>2026-04-03T10:48:27Z</time></trkpt><trkpt lat="44.134007822539246" lon="4.077804699833101"><ele>133.0</ele><time>2026-04-03T10:48:28Z</time></trkpt><trkpt lat="44.133918174048794" lon="4.0779761607413025"><ele>132.0</ele><time>2026-04-03T10:48:29Z</time></trkpt><trkpt lat="44.13383336562127" lon="4.078122619258277"><ele>131.0</ele><time>2026-04-03T10:48:30Z</time></trkpt><trkpt lat="44.13376291217719" lon="4.0782652060898545"><ele>131.75</ele><time>2026-04-03T10:48:31Z</time></trkpt><trkpt lat="44.13369995507483" lon="4.078404003866157"><ele>132.5</ele><time>2026-04-03T10:48:32Z</time></trkpt><trkpt lat="44.13363516920832" lon="4.0785427022072565"><ele>133.25</ele><time>2026-04-03T10:48:33Z</time></trkpt><trkpt lat="44.13356417039505" lon="4.078685448670172"><ele>134.0</ele><time>2026-04-03T10:48:34Z</time></trkpt><trkpt lat="44.13349332407852" lon="4.078834532628794"><ele>134.0</ele><time>2026-04-03T10:48:35Z</time></trkpt><trkpt lat="44.13342419698976" lon="4.078973079885923"><ele>134.0</ele><time>2026-04-03T10:48:36Z</time></trkpt><trkpt lat="44.13335633729269" lon="4.079104147162324"><ele>134.0</ele><time>2026-04-03T10:48:37Z</time></trkpt><trkpt lat="44.13329358975494" lon="4.079221377907212"><ele>134.0</ele><time>2026-04-03T10:48:38Z</time></trkpt><trkpt lat="44.13325429250364" lon="4.079302725121987"><ele>134.0</ele><time>2026-04-03T10:48:39Z</time></trkpt><trkpt lat="44.13317908326172" lon="4.07937830317458"><ele>134.33333333333331</ele><time>2026-04-03T10:48:41Z</time></trkpt><trkpt lat="44.13311843567602" lon="4.079435879667618"><ele>134.66666666666666</ele><time>2026-04-03T10:48:42Z</time></trkpt><trkpt lat="44.133085196658485" lon="4.079524192519714"><ele>135.0</ele><time>2026-04-03T10:48:43Z</time></trkpt><trkpt lat="44.133110940809935" lon="4.0796077507417445"><ele>135.33333333333334</ele><time>2026-04-03T10:48:44Z</time></trkpt><trkpt lat="44.13317398534618" lon="4.079675614326873"><ele>135.66666666666669</ele><time>2026-04-03T10:48:45Z</time></trkpt><trkpt lat="44.13327263836088" lon="4.079735887046352"><ele>136.0</ele><time>2026-04-03T10:48:46Z</time></trkpt><trkpt lat="44.13333857422482" lon="4.079849117128451"><ele>135.8</ele><time>2026-04-03T10:48:47Z</time></trkpt><trkpt lat="44.1333869384689" lon="4.079984189099276"><ele>135.6</ele><time>2026-04-03T10:48:48Z</time></trkpt><trkpt lat="44.133414813597746" lon="4.080115813964995"><ele>135.4</ele><time>2026-04-03T10:48:49Z</time></trkpt><trkpt lat="44.13342495660801" lon="4.080258281242536"><ele>135.2</ele><time>2026-04-03T10:48:50Z</time></trkpt><trkpt lat="44.13340264954427" lon="4.080403750488061"><ele>135.0</ele><time>2026-04-03T10:48:51Z</time></trkpt><trkpt lat="44.13337555833308" lon="4.080574087518691"><ele>135.0</ele><time>2026-04-03T10:48:52Z</time></trkpt><trkpt lat="44.13334738964737" lon="4.080757134913358"><ele>135.0</ele><time>2026-04-03T10:48:53Z</time></trkpt><trkpt lat="44.13333126043498" lon="4.080943492102215"><ele>135.0</ele><time>2026-04-03T10:48:54Z</time></trkpt><trkpt lat="44.133305592590446" lon="4.081102991022226"><ele>135.0</ele><time>2026-04-03T10:48:55Z</time></trkpt><trkpt lat="44.13324690339807" lon="4.081236352961653"><ele>135.0</ele><time>2026-04-03T10:48:56Z</time></trkpt><trkpt lat="44.13322180373367" lon="4.081357338638718"><ele>135.0</ele><time>2026-04-03T10:48:57Z</time></trkpt><trkpt lat="44.13327197051805" lon="4.081470839216687"><ele>135.0</ele><time>2026-04-03T10:48:58Z</time></trkpt><trkpt lat="44.1333418916161" lon="4.08154737565186"><ele>135.0</ele><time>2026-04-03T10:48:59Z</time></trkpt><trkpt lat="44.13342902592702" lon="4.081639593069943"><ele>135.0</ele><time>2026-04-03T10:49:00Z</time></trkpt><trkpt lat="44.13348304624855" lon="4.0817674108455035"><ele>135.5</ele><time>2026-04-03T10:49:01Z</time></trkpt><trkpt lat="44.13345993629611" lon="4.081940545912479"><ele>136.0</ele><time>2026-04-03T10:49:02Z</time></trkpt><trkpt lat="44.13348378126678" lon="4.082132662390995"><ele>136.5</ele><time>2026-04-03T10:49:03Z</time></trkpt><trkpt lat="44.13354183805599" lon="4.082325293729798"><ele>137.0</ele><time>2026-04-03T10:49:04Z</time></trkpt><trkpt lat="44.13361397573826" lon="4.082495862128273"><ele>138.0</ele><time>2026-04-03T10:49:05Z</time></trkpt><trkpt lat="44.13370343730612" lon="4.082630601126743"><ele>139.0</ele><time>2026-04-03T10:49:06Z</time></trkpt><trkpt lat="44.1337993417838" lon="4.082717444607568"><ele>140.0</ele><time>2026-04-03T10:49:07Z</time></trkpt><trkpt lat="44.13388821611057" lon="4.08277144932822"><ele>141.0</ele><time>2026-04-03T10:49:08Z</time></trkpt><trkpt lat="44.133935346855935" lon="4.082862740417677"><ele>142.0</ele><time>2026-04-03T10:49:09Z</time></trkpt><trkpt lat="44.13390442323954" lon="4.082974928283365"><ele>142.0</ele><time>2026-04-03T10:49:10Z</time></trkpt><trkpt lat="44.13384231891587" lon="4.083003138754207"><ele>142.0</ele><time>2026-04-03T10:49:32Z</time></trkpt><trkpt lat="44.13381059608295" lon="4.083079569645682"><ele>142.0</ele><time>2026-04-03T10:49:33Z</time></trkpt><trkpt lat="44.13376859286199" lon="4.083161127542269"><ele>142.0</ele><time>2026-04-03T10:49:35Z</time></trkpt><trkpt lat="44.13363446324436" lon="4.083069981518804"><ele>142.0</ele><time>2026-04-03T10:49:36Z</time></trkpt><trkpt lat="44.13354633134715" lon="4.082991958905577"><ele>142.0</ele><time>2026-04-03T10:49:37Z</time></trkpt><trkpt lat="44.13343786203327" lon="4.0829017708038045"><ele>142.0</ele><time>2026-04-03T10:49:38Z</time></trkpt><trkpt lat="44.13329932419729" lon="4.082796319748704"><ele>142.0</ele><time>2026-04-03T10:49:39Z</time></trkpt><trkpt lat="44.133164352418014" lon="4.082672039784489"><ele>142.0</ele><time>2026-04-03T10:49:40Z</time></trkpt><trkpt lat="44.133019604251835" lon="4.082572934700782"><ele>141.0</ele><time>2026-04-03T10:49:41Z</time></trkpt><trkpt lat="44.13287818966722" lon="4.082453092804809"><ele>140.0</ele><time>2026-04-03T10:49:42Z</time></trkpt><trkpt lat="44.132737116303794" lon="4.08233112375021"><ele>139.0</ele><time>2026-04-03T10:49:43Z</time></trkpt><trkpt lat="44.13260201241811" lon="4.082199900252558"><ele>139.0</ele><time>2026-04-03T10:49:44Z</time></trkpt><trkpt lat="44.13247034583933" lon="4.082065520798633"><ele>139.0</ele><time>2026-04-03T10:49:45Z</time></trkpt><trkpt lat="44.132340991991306" lon="4.081928389831017"><ele>139.0</ele><time>2026-04-03T10:49:46Z</time></trkpt><trkpt lat="44.132214005665816" lon="4.081788100489855"><ele>138.33333333333334</ele><time>2026-04-03T10:49:47Z</time></trkpt><trkpt lat="44.13208861412927" lon="4.081645416663526"><ele>137.66666666666666</ele><time>2026-04-03T10:49:48Z</time></trkpt><trkpt lat="44.131968312473006" lon="4.081500069457874"><ele>137.0</ele><time>2026-04-03T10:49:49Z</time></trkpt><trkpt lat="44.13185807973125" lon="4.081361900980631"><ele>137.0</ele><time>2026-04-03T10:49:50Z</time></trkpt><trkpt lat="44.13176842345246" lon="4.081245576633225"><ele>137.0</ele><time>2026-04-03T10:49:51Z</time></trkpt><trkpt lat="44.13168968641901" lon="4.0811514978505965"><ele>137.0</ele><time>2026-04-03T10:49:52Z</time></trkpt><trkpt lat="44.13163098085554" lon="4.081092878001194"><ele>137.0</ele><time>2026-04-03T10:49:53Z</time></trkpt><trkpt lat="44.1315669839853" lon="4.08105562495039"><ele>137.0</ele><time>2026-04-03T10:49:55Z</time></trkpt><trkpt lat="44.131648739950016" lon="4.0811247035463305"><ele>137.0</ele><time>2026-04-03T10:50:04Z</time></trkpt><trkpt lat="44.131618146411256" lon="4.081246978530247"><ele>137.0</ele><time>2026-04-03T10:50:05Z</time></trkpt><trkpt lat="44.13163244153739" lon="4.081333291498459"><ele>137.0</ele><time>2026-04-03T10:50:06Z</time></trkpt><trkpt lat="44.131699334211156" lon="4.081422870666285"><ele>137.0</ele><time>2026-04-03T10:50:07Z</time></trkpt><trkpt lat="44.13178246737878" lon="4.081530954900318"><ele>137.0</ele><time>2026-04-03T10:50:08Z</time></trkpt><trkpt lat="44.1318742265436" lon="4.081656436264279"><ele>139.79999999999998</ele><time>2026-04-03T10:50:09Z</time></trkpt><trkpt lat="44.13195858369886" lon="4.081774559608684"><ele>142.6</ele><time>2026-04-03T10:50:10Z</time></trkpt><trkpt lat="44.13202907327344" lon="4.081876250629337"><ele>145.39999999999998</ele><time>2026-04-03T10:50:11Z</time></trkpt><trkpt lat="44.13210723225649" lon="4.081986465256863"><ele>148.2</ele><time>2026-04-03T10:50:12Z</time></trkpt><trkpt lat="44.132183993455904" lon="4.0820911915869695"><ele>151.0</ele><time>2026-04-03T10:50:13Z</time></trkpt><trkpt lat="44.132253551541986" lon="4.082215729374118"><ele>151.0</ele><time>2026-04-03T10:50:14Z</time></trkpt><trkpt lat="44.13233620059222" lon="4.082302464041176"><ele>151.0</ele><time>2026-04-03T10:50:15Z</time></trkpt><trkpt lat="44.1324125777806" lon="4.082413047847307"><ele>151.0</ele><time>2026-04-03T10:50:16Z</time></trkpt><trkpt lat="44.13247056577165" lon="4.082498132263066"><ele>151.0</ele><time>2026-04-03T10:50:17Z</time></trkpt><trkpt lat="44.13252981342214" lon="4.082575697313827"><ele>151.0</ele><time>2026-04-03T10:50:18Z</time></trkpt><trkpt lat="44.13257931424933" lon="4.082690591495916"><ele>151.33333333333334</ele><time>2026-04-03T10:50:20Z</time></trkpt><trkpt lat="44.13261535384481" lon="4.082805368363519"><ele>151.66666666666669</ele><time>2026-04-03T10:50:22Z</time></trkpt><trkpt lat="44.132678714425815" lon="4.0828808669620384"><ele>152.0</ele><time>2026-04-03T10:50:23Z</time></trkpt><trkpt lat="44.13271103744304" lon="4.082966816236941"><ele>152.33333333333334</ele><time>2026-04-03T10:50:24Z</time></trkpt><trkpt lat="44.13261889529771" lon="4.082927536602438"><ele>152.66666666666666</ele><time>2026-04-03T10:50:30Z</time></trkpt><trkpt lat="44.13253572175619" lon="4.082849151123259"><ele>153.0</ele><time>2026-04-03T10:50:33Z</time></trkpt><trkpt lat="44.13247907671922" lon="4.0827822159711005"><ele>153.0</ele><time>2026-04-03T10:50:34Z</time></trkpt><trkpt lat="44.13242515133615" lon="4.082722785248472"><ele>153.0</ele><time>2026-04-03T10:50:35Z</time></trkpt><trkpt lat="44.13237321426309" lon="4.082669375062625"><ele>153.0</ele><time>2026-04-03T10:50:36Z</time></trkpt><trkpt lat="44.132314892684704" lon="4.082606872930391"><ele>153.0</ele><time>2026-04-03T10:50:37Z</time></trkpt><trkpt lat="44.132240748517475" lon="4.082532470649054"><ele>153.0</ele><time>2026-04-03T10:50:38Z</time></trkpt><trkpt lat="44.13214109640744" lon="4.082430205319823"><ele>153.0</ele><time>2026-04-03T10:50:39Z</time></trkpt><trkpt lat="44.13205662611874" lon="4.082330742059672"><ele>152.6</ele><time>2026-04-03T10:50:40Z</time></trkpt><trkpt lat="44.13196616402188" lon="4.082216660213673"><ele>152.20000000000002</ele><time>2026-04-03T10:50:41Z</time></trkpt><trkpt lat="44.131879516681366" lon="4.082144554781833"><ele>151.8</ele><time>2026-04-03T10:50:42Z</time></trkpt><trkpt lat="44.13180997033124" lon="4.082052925687256"><ele>151.4</ele><time>2026-04-03T10:50:43Z</time></trkpt><trkpt lat="44.13174907046754" lon="4.081988780487002"><ele>151.0</ele><time>2026-04-03T10:50:44Z</time></trkpt><trkpt lat="44.131697677150306" lon="4.081935739764418"><ele>151.0</ele><time>2026-04-03T10:50:45Z</time></trkpt><trkpt lat="44.13163385755037" lon="4.081870599399597"><ele>151.0</ele><time>2026-04-03T10:50:46Z</time></trkpt><trkpt lat="44.131560570753656" lon="4.08181474044105"><ele>151.0</ele><time>2026-04-03T10:50:47Z</time></trkpt><trkpt lat="44.13144958558369" lon="4.081865030961567"><ele>151.0</ele><time>2026-04-03T10:50:49Z</time></trkpt><trkpt lat="44.13141625352425" lon="4.081958257085642"><ele>151.0</ele><time>2026-04-03T10:50:50Z</time></trkpt><trkpt lat="44.1313805412464" lon="4.082060757644044"><ele>151.0</ele><time>2026-04-03T10:50:51Z</time></trkpt><trkpt lat="44.131342945034156" lon="4.082153519272895"><ele>151.42857142857144</ele><time>2026-04-03T10:50:52Z</time></trkpt><trkpt lat="44.13130201782013" lon="4.082228078705576"><ele>151.85714285714286</ele><time>2026-04-03T10:50:53Z</time></trkpt><trkpt lat="44.13123567676364" lon="4.082270256055803"><ele>152.28571428571428</ele><time>2026-04-03T10:50:54Z</time></trkpt><trkpt lat="44.131159129040654" lon="4.082258721614955"><ele>152.71428571428572</ele><time>2026-04-03T10:50:55Z</time></trkpt><trkpt lat="44.13109796609349" lon="4.082172465649858"><ele>153.14285714285714</ele><time>2026-04-03T10:50:56Z</time></trkpt><trkpt lat="44.131031910429584" lon="4.082153251224268"><ele>153.57142857142858</ele><time>2026-04-03T10:50:57Z</time></trkpt><trkpt lat="44.13097449867564" lon="4.082102249837372"><ele>154.0</ele><time>2026-04-03T10:50:58Z</time></trkpt><trkpt lat="44.13090006928677" lon="4.082036000181789"><ele>154.0</ele><time>2026-04-03T10:50:59Z</time></trkpt><trkpt lat="44.13080634881053" lon="4.081903726121301"><ele>154.0</ele><time>2026-04-03T10:51:00Z</time></trkpt><trkpt lat="44.130761393115485" lon="4.081749153012067"><ele>154.0</ele><time>2026-04-03T10:51:01Z</time></trkpt><trkpt lat="44.130691752434565" lon="4.081643991465879"><ele>154.0</ele><time>2026-04-03T10:51:02Z</time></trkpt><trkpt lat="44.130659023715324" lon="4.081543910897878"><ele>154.0</ele><time>2026-04-03T10:51:03Z</time></trkpt><trkpt lat="44.13059766015648" lon="4.081490291363428"><ele>152.25</ele><time>2026-04-03T10:51:04Z</time></trkpt><trkpt lat="44.13056202385774" lon="4.081410811337499"><ele>150.5</ele><time>2026-04-03T10:51:05Z</time></trkpt><trkpt lat="44.13041582768967" lon="4.081487355327437"><ele>148.75</ele><time>2026-04-03T10:51:06Z</time></trkpt><trkpt lat="44.13030031582599" lon="4.081508748216719"><ele>147.0</ele><time>2026-04-03T10:51:07Z</time></trkpt><trkpt lat="44.13017949171398" lon="4.081527498128135"><ele>147.0</ele><time>2026-04-03T10:51:08Z</time></trkpt><trkpt lat="44.13009251650972" lon="4.081537607151811"><ele>147.0</ele><time>2026-04-03T10:51:09Z</time></trkpt><trkpt lat="44.1300124349044" lon="4.081545408878718"><ele>147.0</ele><time>2026-04-03T10:51:10Z</time></trkpt><trkpt lat="44.12987895330762" lon="4.081578813544087"><ele>147.0</ele><time>2026-04-03T10:51:14Z</time></trkpt><trkpt lat="44.12976985064696" lon="4.081629868637256"><ele>147.0</ele><time>2026-04-03T10:51:15Z</time></trkpt><trkpt lat="44.129665379257005" lon="4.0816648059368505"><ele>147.5</ele><time>2026-04-03T10:51:16Z</time></trkpt><trkpt lat="44.129567152278405" lon="4.081706419964602"><ele>148.0</ele><time>2026-04-03T10:51:17Z</time></trkpt><trkpt lat="44.12948177389848" lon="4.081745689999714"><ele>148.5</ele><time>2026-04-03T10:51:18Z</time></trkpt><trkpt lat="44.12940974309037" lon="4.081796766856068"><ele>149.0</ele><time>2026-04-03T10:51:19Z</time></trkpt><trkpt lat="44.12933808410535" lon="4.081827931774084"><ele>149.5</ele><time>2026-04-03T10:51:20Z</time></trkpt><trkpt lat="44.12927741999767" lon="4.081892695314502"><ele>150.0</ele><time>2026-04-03T10:51:21Z</time></trkpt><trkpt lat="44.12921502007998" lon="4.081930890872176"><ele>150.0</ele><time>2026-04-03T10:51:22Z</time></trkpt><trkpt lat="44.12908705965746" lon="4.08180059532481"><ele>150.0</ele><time>2026-04-03T10:51:30Z</time></trkpt><trkpt lat="44.129033578778824" lon="4.081728437556992"><ele>150.0</ele><time>2026-04-03T10:51:31Z</time></trkpt><trkpt lat="44.12895484196232" lon="4.081644087264663"><ele>150.0</ele><time>2026-04-03T10:51:33Z</time></trkpt><trkpt lat="44.12888935318027" lon="4.081553993158946"><ele>150.0</ele><time>2026-04-03T10:51:35Z</time></trkpt><trkpt lat="44.128811704441624" lon="4.081458672065934"><ele>149.4</ele><time>2026-04-03T10:51:37Z</time></trkpt><trkpt lat="44.12875011332319" lon="4.081383209942226"><ele>148.8</ele><time>2026-04-03T10:51:38Z</time></trkpt><trkpt lat="44.12868714044339" lon="4.081281941374932"><ele>148.2</ele><time>2026-04-03T10:51:39Z</time></trkpt><trkpt lat="44.128599800441755" lon="4.081200130681871"><ele>147.6</ele><time>2026-04-03T10:51:40Z</time></trkpt><trkpt lat="44.128499439956215" lon="4.0811129767060885"><ele>147.0</ele><time>2026-04-03T10:51:41Z</time></trkpt><trkpt lat="44.128383367251224" lon="4.08101450957453"><ele>147.0</ele><time>2026-04-03T10:51:42Z</time></trkpt><trkpt lat="44.1282661827478" lon="4.080924996736268"><ele>147.0</ele><time>2026-04-03T10:51:43Z</time></trkpt><trkpt lat="44.12815645383471" lon="4.080847590475142"><ele>147.0</ele><time>2026-04-03T10:51:44Z</time></trkpt><trkpt lat="44.1280524041465" lon="4.080772491147193"><ele>147.0</ele><time>2026-04-03T10:51:45Z</time></trkpt><trkpt lat="44.127960609992996" lon="4.0806892093119345"><ele>145.79999999999998</ele><time>2026-04-03T10:51:46Z</time></trkpt><trkpt lat="44.12788454740536" lon="4.080591294243091"><ele>144.6</ele><time>2026-04-03T10:51:47Z</time></trkpt><trkpt lat="44.127824071863444" lon="4.080478389518732"><ele>143.39999999999998</ele><time>2026-04-03T10:51:48Z</time></trkpt><trkpt lat="44.12776445265267" lon="4.080374951589807"><ele>142.2</ele><time>2026-04-03T10:51:49Z</time></trkpt><trkpt lat="44.12769987546687" lon="4.080280478964669"><ele>141.0</ele><time>2026-04-03T10:51:50Z</time></trkpt><trkpt lat="44.127648724139426" lon="4.080188649953034"><ele>141.0</ele><time>2026-04-03T10:51:51Z</time></trkpt><trkpt lat="44.1276050219662" lon="4.080114983202796"><ele>141.0</ele><time>2026-04-03T10:51:52Z</time></trkpt><trkpt lat="44.12752353866751" lon="4.080002705004605"><ele>141.0</ele><time>2026-04-03T10:51:54Z</time></trkpt><trkpt lat="44.12740431310721" lon="4.080124568800696"><ele>141.0</ele><time>2026-04-03T10:52:46Z</time></trkpt><trkpt lat="44.1273575316662" lon="4.080201793135824"><ele>141.0</ele><time>2026-04-03T10:52:47Z</time></trkpt><trkpt lat="44.12738480091184" lon="4.0803466044711225"><ele>141.0</ele><time>2026-04-03T10:52:48Z</time></trkpt><trkpt lat="44.12741614121871" lon="4.0804802246120575"><ele>141.0</ele><time>2026-04-03T10:52:49Z</time></trkpt><trkpt lat="44.127459958721694" lon="4.080639953374159"><ele>141.0</ele><time>2026-04-03T10:52:50Z</time></trkpt><trkpt lat="44.12750847602238" lon="4.080840709185269"><ele>141.0</ele><time>2026-04-03T10:52:51Z</time></trkpt><trkpt lat="44.127546882161354" lon="4.0810100097845465"><ele>141.0</ele><time>2026-04-03T10:52:52Z</time></trkpt><trkpt lat="44.127551399982494" lon="4.081180195085661"><ele>141.0</ele><time>2026-04-03T10:52:53Z</time></trkpt><trkpt lat="44.127554539523395" lon="4.0813456885796295"><ele>141.0</ele><time>2026-04-03T10:52:54Z</time></trkpt><trkpt lat="44.12753725639847" lon="4.081509638415374"><ele>141.0</ele><time>2026-04-03T10:52:55Z</time></trkpt><trkpt lat="44.12750699975347" lon="4.0816618251414365"><ele>140.5</ele><time>2026-04-03T10:52:56Z</time></trkpt><trkpt lat="44.127477558243854" lon="4.081818153577698"><ele>140.0</ele><time>2026-04-03T10:52:57Z</time></trkpt><trkpt lat="44.1274513010242" lon="4.081966606943359"><ele>139.5</ele><time>2026-04-03T10:52:58Z</time></trkpt><trkpt lat="44.127422429323985" lon="4.082066316504023"><ele>139.0</ele><time>2026-04-03T10:52:59Z</time></trkpt><trkpt lat="44.12737011546799" lon="4.082132577858896"><ele>138.5</ele><time>2026-04-03T10:53:00Z</time></trkpt><trkpt lat="44.12729755371049" lon="4.082158833584742"><ele>138.0</ele><time>2026-04-03T10:53:01Z</time></trkpt><trkpt lat="44.127225988867416" lon="4.082164373674075"><ele>138.0</ele><time>2026-04-03T10:53:02Z</time></trkpt><trkpt lat="44.127126275500665" lon="4.082170019003743"><ele>138.0</ele><time>2026-04-03T10:53:04Z</time></trkpt><trkpt lat="44.12704952633837" lon="4.082220065035616"><ele>138.0</ele><time>2026-04-03T10:53:05Z</time></trkpt><trkpt lat="44.12698072497689" lon="4.082308349140717"><ele>138.0</ele><time>2026-04-03T10:53:06Z</time></trkpt><trkpt lat="44.12689889413324" lon="4.082417925352155"><ele>138.0</ele><time>2026-04-03T10:53:07Z</time></trkpt><trkpt lat="44.12677206612355" lon="4.082493105207707"><ele>138.0</ele><time>2026-04-03T10:53:08Z</time></trkpt><trkpt lat="44.1266267303881" lon="4.082556102742566"><ele>138.0</ele><time>2026-04-03T10:53:09Z</time></trkpt><trkpt lat="44.12649792786648" lon="4.082615322597553"><ele>138.0</ele><time>2026-04-03T10:53:10Z</time></trkpt><trkpt lat="44.12638177930432" lon="4.082678103209095"><ele>138.0</ele><time>2026-04-03T10:53:11Z</time></trkpt><trkpt lat="44.12627297291442" lon="4.0827411411296035"><ele>137.6</ele><time>2026-04-03T10:53:12Z</time></trkpt><trkpt lat="44.126158975438784" lon="4.082810419423778"><ele>137.20000000000002</ele><time>2026-04-03T10:53:13Z</time></trkpt><trkpt lat="44.12605553158663" lon="4.082868620004882"><ele>136.8</ele><time>2026-04-03T10:53:14Z</time></trkpt><trkpt lat="44.12596278382876" lon="4.082922278269745"><ele>136.4</ele><time>2026-04-03T10:53:15Z</time></trkpt><trkpt lat="44.12589761503743" lon="4.082953102870697"><ele>136.0</ele><time>2026-04-03T10:53:16Z</time></trkpt><trkpt lat="44.12581865446591" lon="4.082994699104989"><ele>135.99999999999997</ele><time>2026-04-03T10:53:17Z</time></trkpt><trkpt lat="44.12574693939518" lon="4.083037154127863"><ele>136.0</ele><time>2026-04-03T10:53:18Z</time></trkpt><trkpt lat="44.125676738478774" lon="4.08307852729465"><ele>136.0</ele><time>2026-04-03T10:53:19Z</time></trkpt><trkpt lat="44.125613544318874" lon="4.083120242666226"><ele>136.0</ele><time>2026-04-03T10:53:20Z</time></trkpt><trkpt lat="44.12555493255343" lon="4.083155712703843"><ele>136.0</ele><time>2026-04-03T10:53:21Z</time></trkpt><trkpt lat="44.1254905494332" lon="4.083200943902143"><ele>135.99999999999997</ele><time>2026-04-03T10:53:22Z</time></trkpt><trkpt lat="44.125419629612495" lon="4.083248211158803"><ele>136.0</ele><time>2026-04-03T10:53:23Z</time></trkpt><trkpt lat="44.12533771957746" lon="4.083297918582767"><ele>135.8</ele><time>2026-04-03T10:53:24Z</time></trkpt><trkpt lat="44.125229262878285" lon="4.083303823872741"><ele>135.6</ele><time>2026-04-03T10:53:25Z</time></trkpt><trkpt lat="44.125126403933365" lon="4.083359804318602"><ele>135.4</ele><time>2026-04-03T10:53:26Z</time></trkpt><trkpt lat="44.12501602747299" lon="4.083418729712868"><ele>135.2</ele><time>2026-04-03T10:53:27Z</time></trkpt><trkpt lat="44.12492206512672" lon="4.083487342188881"><ele>135.0</ele><time>2026-04-03T10:53:28Z</time></trkpt><trkpt lat="44.12481433103083" lon="4.083529589944631"><ele>134.5</ele><time>2026-04-03T10:53:29Z</time></trkpt><trkpt lat="44.12468896530578" lon="4.083603225335828"><ele>134.0</ele><time>2026-04-03T10:53:30Z</time></trkpt><trkpt lat="44.12456772398356" lon="4.083656445522931"><ele>133.5</ele><time>2026-04-03T10:53:31Z</time></trkpt><trkpt lat="44.12446130005464" lon="4.083720276397617"><ele>133.0</ele><time>2026-04-03T10:53:32Z</time></trkpt><trkpt lat="44.124362764409554" lon="4.0837790775738245"><ele>133.0</ele><time>2026-04-03T10:53:33Z</time></trkpt><trkpt lat="44.12427782029159" lon="4.083828902839278"><ele>133.0</ele><time>2026-04-03T10:53:34Z</time></trkpt><trkpt lat="44.12421213259228" lon="4.08387356966361"><ele>133.0</ele><time>2026-04-03T10:53:35Z</time></trkpt><trkpt lat="44.12415479525419" lon="4.083910952696279"><ele>133.0</ele><time>2026-04-03T10:53:37Z</time></trkpt><trkpt lat="44.12407028223077" lon="4.08395397280807"><ele>133.0</ele><time>2026-04-03T10:54:19Z</time></trkpt><trkpt lat="44.12406962070634" lon="4.084137071594332"><ele>133.0</ele><time>2026-04-03T10:54:21Z</time></trkpt><trkpt lat="44.124104130591405" lon="4.08422337970843"><ele>133.0</ele><time>2026-04-03T10:54:22Z</time></trkpt><trkpt lat="44.124155728067294" lon="4.084320244107358"><ele>133.0</ele><time>2026-04-03T10:54:23Z</time></trkpt><trkpt lat="44.12421978261788" lon="4.084434683084213"><ele>133.0</ele><time>2026-04-03T10:54:24Z</time></trkpt><trkpt lat="44.12428375574296" lon="4.084560529697654"><ele>133.0</ele><time>2026-04-03T10:54:25Z</time></trkpt><trkpt lat="44.124335529921154" lon="4.084700961611521"><ele>133.0</ele><time>2026-04-03T10:54:26Z</time></trkpt><trkpt lat="44.12437920900872" lon="4.084836507353027"><ele>133.0</ele><time>2026-04-03T10:54:27Z</time></trkpt><trkpt lat="44.12439918065063" lon="4.084955749226999"><ele>133.0</ele><time>2026-04-03T10:54:28Z</time></trkpt><trkpt lat="44.12444431439282" lon="4.085042817166947"><ele>133.0</ele><time>2026-04-03T10:54:29Z</time></trkpt><trkpt lat="44.1244782845312" lon="4.085144645743945"><ele>133.0</ele><time>2026-04-03T10:54:30Z</time></trkpt><trkpt lat="44.12452154435916" lon="4.085265290195951"><ele>133.0</ele><time>2026-04-03T10:54:31Z</time></trkpt><trkpt lat="44.124562436934745" lon="4.085393632534503"><ele>132.66666666666669</ele><time>2026-04-03T10:54:32Z</time></trkpt><trkpt lat="44.12460247649027" lon="4.085514716310057"><ele>132.33333333333334</ele><time>2026-04-03T10:54:33Z</time></trkpt><trkpt lat="44.124629413944035" lon="4.08561595204554"><ele>132.0</ele><time>2026-04-03T10:54:34Z</time></trkpt><trkpt lat="44.124653228991704" lon="4.085703531647545"><ele>131.66666666666666</ele><time>2026-04-03T10:54:35Z</time></trkpt><trkpt lat="44.12467595708268" lon="4.085787750967687"><ele>131.33333333333331</ele><time>2026-04-03T10:54:36Z</time></trkpt><trkpt lat="44.12470667528641" lon="4.085929567681991"><ele>131.0</ele><time>2026-04-03T10:54:38Z</time></trkpt><trkpt lat="44.12474618662212" lon="4.086063514066803"><ele>130.83333333333331</ele><time>2026-04-03T10:54:40Z</time></trkpt><trkpt lat="44.124751022825656" lon="4.086172747857124"><ele>130.66666666666666</ele><time>2026-04-03T10:54:41Z</time></trkpt><trkpt lat="44.12478541621766" lon="4.086252637413686"><ele>130.5</ele><time>2026-04-03T10:54:42Z</time></trkpt><trkpt lat="44.124810617289796" lon="4.08639195296623"><ele>130.33333333333334</ele><time>2026-04-03T10:54:44Z</time></trkpt><trkpt lat="44.124824587163964" lon="4.086508690088573"><ele>130.16666666666669</ele><time>2026-04-03T10:54:46Z</time></trkpt><trkpt lat="44.12485172280848" lon="4.086650153725865"><ele>130.0</ele><time>2026-04-03T10:54:48Z</time></trkpt><trkpt lat="44.1248704098066" lon="4.0867485766817"><ele>129.8</ele><time>2026-04-03T10:54:49Z</time></trkpt><trkpt lat="44.12486353986669" lon="4.086863725091951"><ele>129.6</ele><time>2026-04-03T10:54:50Z</time></trkpt><trkpt lat="44.12487289278524" lon="4.086995252816165"><ele>129.4</ele><time>2026-04-03T10:54:51Z</time></trkpt><trkpt lat="44.124895471313316" lon="4.087163542278678"><ele>129.2</ele><time>2026-04-03T10:54:52Z</time></trkpt><trkpt lat="44.124903843754325" lon="4.087348217738646"><ele>129.0</ele><time>2026-04-03T10:54:53Z</time></trkpt><trkpt lat="44.12491268002657" lon="4.087545216247932"><ele>129.0</ele><time>2026-04-03T10:54:54Z</time></trkpt><trkpt lat="44.12492153905314" lon="4.087730393658222"><ele>129.0</ele><time>2026-04-03T10:54:55Z</time></trkpt><trkpt lat="44.124928635763645" lon="4.087903439077307"><ele>129.0</ele><time>2026-04-03T10:54:56Z</time></trkpt><trkpt lat="44.12493013787084" lon="4.088053645890233"><ele>129.0</ele><time>2026-04-03T10:54:57Z</time></trkpt><trkpt lat="44.12492503315875" lon="4.08820020930863"><ele>128.75</ele><time>2026-04-03T10:54:58Z</time></trkpt><trkpt lat="44.12491914768462" lon="4.088374098376679"><ele>128.5</ele><time>2026-04-03T10:54:59Z</time></trkpt><trkpt lat="44.12492273059719" lon="4.088544001141762"><ele>128.25</ele><time>2026-04-03T10:55:00Z</time></trkpt><trkpt lat="44.124926452432845" lon="4.088727479880935"><ele>128.0</ele><time>2026-04-03T10:55:01Z</time></trkpt><trkpt lat="44.12493030452828" lon="4.088907327693412"><ele>128.0</ele><time>2026-04-03T10:55:02Z</time></trkpt><trkpt lat="44.12493426118462" lon="4.08909205857675"><ele>128.0</ele><time>2026-04-03T10:55:03Z</time></trkpt><trkpt lat="44.124950656885666" lon="4.08928130946096"><ele>128.0</ele><time>2026-04-03T10:55:04Z</time></trkpt><trkpt lat="44.12496884715816" lon="4.0894416153779"><ele>128.0</ele><time>2026-04-03T10:55:05Z</time></trkpt><trkpt lat="44.12498926666993" lon="4.0895996902062555"><ele>128.8</ele><time>2026-04-03T10:55:06Z</time></trkpt><trkpt lat="44.12501020353641" lon="4.0897576818273516"><ele>129.60000000000002</ele><time>2026-04-03T10:55:07Z</time></trkpt><trkpt lat="44.12502968866604" lon="4.08990471998785"><ele>130.39999999999998</ele><time>2026-04-03T10:55:08Z</time></trkpt><trkpt lat="44.12504682761309" lon="4.0900237413330816"><ele>131.2</ele><time>2026-04-03T10:55:09Z</time></trkpt><trkpt lat="44.12507247254725" lon="4.090155039258315"><ele>132.0</ele><time>2026-04-03T10:55:10Z</time></trkpt><trkpt lat="44.125093685588325" lon="4.090278968079338"><ele>132.2</ele><time>2026-04-03T10:55:11Z</time></trkpt><trkpt lat="44.12510242671189" lon="4.090422215894855"><ele>132.39999999999998</ele><time>2026-04-03T10:55:12Z</time></trkpt><trkpt lat="44.125127785376826" lon="4.090572284962085"><ele>132.60000000000002</ele><time>2026-04-03T10:55:13Z</time></trkpt><trkpt lat="44.125154878755026" lon="4.0907236833281555"><ele>132.8</ele><time>2026-04-03T10:55:14Z</time></trkpt><trkpt lat="44.12517924304046" lon="4.090862560219983"><ele>133.0</ele><time>2026-04-03T10:55:15Z</time></trkpt><trkpt lat="44.12519848295979" lon="4.090986870998372"><ele>132.5</ele><time>2026-04-03T10:55:16Z</time></trkpt><trkpt lat="44.12521660523703" lon="4.091095353711999"><ele>132.0</ele><time>2026-04-03T10:55:17Z</time></trkpt><trkpt lat="44.125230597785745" lon="4.091193591211698"><ele>131.5</ele><time>2026-04-03T10:55:18Z</time></trkpt><trkpt lat="44.12525226270651" lon="4.0912806909842"><ele>131.0</ele><time>2026-04-03T10:55:19Z</time></trkpt><trkpt lat="44.12530835026915" lon="4.091359920803703"><ele>130.5</ele><time>2026-04-03T10:55:20Z</time></trkpt><trkpt lat="44.12533985753723" lon="4.091485810651558"><ele>130.0</ele><time>2026-04-03T10:55:21Z</time></trkpt><trkpt lat="44.12543518538383" lon="4.0915683211964025"><ele>130.0</ele><time>2026-04-03T10:55:22Z</time></trkpt><trkpt lat="44.12553312590289" lon="4.091662247156744"><ele>130.0</ele><time>2026-04-03T10:55:23Z</time></trkpt><trkpt lat="44.1256253218244" lon="4.091788671529066"><ele>130.0</ele><time>2026-04-03T10:55:24Z</time></trkpt><trkpt lat="44.12568370341722" lon="4.091917716436832"><ele>130.0</ele><time>2026-04-03T10:55:25Z</time></trkpt><trkpt lat="44.12573675261046" lon="4.0920610514543645"><ele>130.6</ele><time>2026-04-03T10:55:26Z</time></trkpt><trkpt lat="44.125762899319376" lon="4.092214610385483"><ele>131.2</ele><time>2026-04-03T10:55:27Z</time></trkpt><trkpt lat="44.12580266751928" lon="4.0923338152119175"><ele>131.8</ele><time>2026-04-03T10:55:28Z</time></trkpt><trkpt lat="44.12584131068067" lon="4.0924523267126505"><ele>132.4</ele><time>2026-04-03T10:55:29Z</time></trkpt><trkpt lat="44.125861795937325" lon="4.092627603339943"><ele>133.0</ele><time>2026-04-03T10:55:30Z</time></trkpt><trkpt lat="44.12591642079086" lon="4.092830792761869"><ele>133.4</ele><time>2026-04-03T10:55:31Z</time></trkpt><trkpt lat="44.125991888581865" lon="4.093015032608615"><ele>133.8</ele><time>2026-04-03T10:55:32Z</time></trkpt><trkpt lat="44.126079544583064" lon="4.093131820169819"><ele>134.2</ele><time>2026-04-03T10:55:33Z</time></trkpt><trkpt lat="44.126139877068375" lon="4.093215531833972"><ele>134.6</ele><time>2026-04-03T10:55:34Z</time></trkpt><trkpt lat="44.126161653882455" lon="4.093311191412324"><ele>135.0</ele><time>2026-04-03T10:55:35Z</time></trkpt><trkpt lat="44.12612658088696" lon="4.093457053398425"><ele>135.75</ele><time>2026-04-03T10:55:36Z</time></trkpt><trkpt lat="44.12614039454952" lon="4.093637925320789"><ele>136.5</ele><time>2026-04-03T10:55:37Z</time></trkpt><trkpt lat="44.12616395950024" lon="4.093828627605755"><ele>137.25</ele><time>2026-04-03T10:55:38Z</time></trkpt><trkpt lat="44.126209795330375" lon="4.0940236105179455"><ele>138.0</ele><time>2026-04-03T10:55:39Z</time></trkpt><trkpt lat="44.1262511801401" lon="4.094249450374002"><ele>138.0</ele><time>2026-04-03T10:55:40Z</time></trkpt><trkpt lat="44.12629051567272" lon="4.094490526371516"><ele>138.0</ele><time>2026-04-03T10:55:41Z</time></trkpt><trkpt lat="44.12633421224336" lon="4.094754278539617"><ele>138.0</ele><time>2026-04-03T10:55:42Z</time></trkpt><trkpt lat="44.12637648798151" lon="4.095010043715051"><ele>138.66666666666666</ele><time>2026-04-03T10:55:43Z</time></trkpt><trkpt lat="44.12641804640195" lon="4.095256965369564"><ele>139.33333333333331</ele><time>2026-04-03T10:55:44Z</time></trkpt><trkpt lat="44.126455032988" lon="4.095495535083846"><ele>140.0</ele><time>2026-04-03T10:55:45Z</time></trkpt><trkpt lat="44.12649707192301" lon="4.095722355711755"><ele>141.5</ele><time>2026-04-03T10:55:46Z</time></trkpt><trkpt lat="44.126524115486404" lon="4.095936238810639"><ele>143.0</ele><time>2026-04-03T10:55:47Z</time></trkpt><trkpt lat="44.12657058610631" lon="4.096115034043448"><ele>144.5</ele><time>2026-04-03T10:55:48Z</time></trkpt><trkpt lat="44.126595084763515" lon="4.096272375046326"><ele>146.0</ele><time>2026-04-03T10:55:49Z</time></trkpt><trkpt lat="44.126628333325876" lon="4.096438385378367"><ele>149.0</ele><time>2026-04-03T10:55:50Z</time></trkpt><trkpt lat="44.1266842473462" lon="4.096646534821393"><ele>152.0</ele><time>2026-04-03T10:55:51Z</time></trkpt><trkpt lat="44.12672966354889" lon="4.09686251975312"><ele>155.0</ele><time>2026-04-03T10:55:52Z</time></trkpt><trkpt lat="44.12676987754887" lon="4.097061542907311"><ele>155.0</ele><time>2026-04-03T10:55:53Z</time></trkpt><trkpt lat="44.12681058087182" lon="4.097253293325646"><ele>155.0</ele><time>2026-04-03T10:55:54Z</time></trkpt><trkpt lat="44.126849598889784" lon="4.097426359595433"><ele>155.0</ele><time>2026-04-03T10:55:55Z</time></trkpt><trkpt lat="44.12686734861179" lon="4.097575439711258"><ele>155.0</ele><time>2026-04-03T10:55:56Z</time></trkpt><trkpt lat="44.12687250611198" lon="4.097741215963212"><ele>157.5</ele><time>2026-04-03T10:55:57Z</time></trkpt><trkpt lat="44.12686786569527" lon="4.097931481031823"><ele>160.0</ele><time>2026-04-03T10:55:58Z</time></trkpt><trkpt lat="44.12686678678431" lon="4.098093770765486"><ele>162.5</ele><time>2026-04-03T10:55:59Z</time></trkpt><trkpt lat="44.12686111766846" lon="4.098216643588501"><ele>165.0</ele><time>2026-04-03T10:56:00Z</time></trkpt><trkpt lat="44.12687814137562" lon="4.098396379812585"><ele>165.5</ele><time>2026-04-03T10:56:02Z</time></trkpt><trkpt lat="44.12690888844238" lon="4.098521090699452"><ele>166.0</ele><time>2026-04-03T10:56:03Z</time></trkpt><trkpt lat="44.12695594069199" lon="4.098706257597488"><ele>166.5</ele><time>2026-04-03T10:56:04Z</time></trkpt><trkpt lat="44.12700359633211" lon="4.0989447735144795"><ele>167.0</ele><time>2026-04-03T10:56:05Z</time></trkpt><trkpt lat="44.12704051535436" lon="4.099155710339346"><ele>167.0</ele><time>2026-04-03T10:56:06Z</time></trkpt><trkpt lat="44.12707190625138" lon="4.099325134302008"><ele>167.0</ele><time>2026-04-03T10:56:07Z</time></trkpt><trkpt lat="44.127109888718145" lon="4.099456659992139"><ele>167.0</ele><time>2026-04-03T10:56:08Z</time></trkpt><trkpt lat="44.1271763932139" lon="4.099553704821362"><ele>167.0</ele><time>2026-04-03T10:56:09Z</time></trkpt><trkpt lat="44.127288282360325" lon="4.099600508241736"><ele>167.0</ele><time>2026-04-03T10:56:10Z</time></trkpt><trkpt lat="44.12743086867021" lon="4.09964356072567"><ele>166.5</ele><time>2026-04-03T10:56:11Z</time></trkpt><trkpt lat="44.127577164292944" lon="4.099716396371733"><ele>166.0</ele><time>2026-04-03T10:56:12Z</time></trkpt><trkpt lat="44.12770387694472" lon="4.099801729119122"><ele>165.5</ele><time>2026-04-03T10:56:13Z</time></trkpt><trkpt lat="44.127806515186855" lon="4.099888977763072"><ele>165.0</ele><time>2026-04-03T10:56:14Z</time></trkpt><trkpt lat="44.12787857397618" lon="4.099985021866622"><ele>165.0</ele><time>2026-04-03T10:56:15Z</time></trkpt><trkpt lat="44.127946800054936" lon="4.1000272323375055"><ele>165.0</ele><time>2026-04-03T10:56:16Z</time></trkpt><trkpt lat="44.127998810495455" lon="4.10010657855794"><ele>165.0</ele><time>2026-04-03T10:56:18Z</time></trkpt><trkpt lat="44.12805072759639" lon="4.100219963856283"><ele>165.0</ele><time>2026-04-03T10:56:24Z</time></trkpt><trkpt lat="44.128147510048194" lon="4.100169928209985"><ele>165.0</ele><time>2026-04-03T10:56:25Z</time></trkpt><trkpt lat="44.12828417355312" lon="4.100191161543923"><ele>165.2</ele><time>2026-04-03T10:56:27Z</time></trkpt><trkpt lat="44.12833707000811" lon="4.100258628724919"><ele>165.4</ele><time>2026-04-03T10:56:28Z</time></trkpt><trkpt lat="44.12839796508739" lon="4.100329452748172"><ele>165.60000000000002</ele><time>2026-04-03T10:56:29Z</time></trkpt><trkpt lat="44.12839295067979" lon="4.100499764207837"><ele>165.8</ele><time>2026-04-03T10:56:30Z</time></trkpt><trkpt lat="44.12841541734011" lon="4.1006264460310575"><ele>166.0</ele><time>2026-04-03T10:56:31Z</time></trkpt><trkpt lat="44.128440707669725" lon="4.10073816374661"><ele>166.5</ele><time>2026-04-03T10:56:32Z</time></trkpt><trkpt lat="44.128465833047116" lon="4.100846114675857"><ele>167.0</ele><time>2026-04-03T10:56:33Z</time></trkpt><trkpt lat="44.12849184420588" lon="4.100969439365031"><ele>167.5</ele><time>2026-04-03T10:56:34Z</time></trkpt><trkpt lat="44.128524151799574" lon="4.101070928547829"><ele>168.0</ele><time>2026-04-03T10:56:35Z</time></trkpt><trkpt lat="44.12855295863078" lon="4.101173141113493"><ele>168.5</ele><time>2026-04-03T10:56:36Z</time></trkpt><trkpt lat="44.12858554665852" lon="4.10129414023397"><ele>169.0</ele><time>2026-04-03T10:56:38Z</time></trkpt><trkpt lat="44.12861748387879" lon="4.101412722971656"><ele>169.0</ele><time>2026-04-03T10:56:41Z</time></trkpt><trkpt lat="44.12864585491656" lon="4.101510872857946"><ele>169.0</ele><time>2026-04-03T10:56:57Z</time></trkpt><trkpt lat="44.12867543361161" lon="4.101610638920314"><ele>169.0</ele><time>2026-04-03T10:56:58Z</time></trkpt><trkpt lat="44.12870230601122" lon="4.101760031076515"><ele>169.0</ele><time>2026-04-03T10:56:59Z</time></trkpt><trkpt lat="44.12874776758266" lon="4.101950678319638"><ele>169.0</ele><time>2026-04-03T10:57:00Z</time></trkpt><trkpt lat="44.128812723206636" lon="4.102153342942569"><ele>168.66666666666669</ele><time>2026-04-03T10:57:01Z</time></trkpt><trkpt lat="44.12887508549869" lon="4.102375398353559"><ele>168.33333333333334</ele><time>2026-04-03T10:57:02Z</time></trkpt><trkpt lat="44.12893526430484" lon="4.102581547270012"><ele>168.0</ele><time>2026-04-03T10:57:03Z</time></trkpt><trkpt lat="44.12899491879197" lon="4.102770149314045"><ele>167.66666666666666</ele><time>2026-04-03T10:57:04Z</time></trkpt><trkpt lat="44.12905329607652" lon="4.102962931609215"><ele>167.33333333333331</ele><time>2026-04-03T10:57:05Z</time></trkpt><trkpt lat="44.12911179073672" lon="4.103161794669093"><ele>167.0</ele><time>2026-04-03T10:57:06Z</time></trkpt><trkpt lat="44.1291675904325" lon="4.103351506536665"><ele>167.0</ele><time>2026-04-03T10:57:07Z</time></trkpt><trkpt lat="44.129221687195844" lon="4.103550129079251"><ele>167.0</ele><time>2026-04-03T10:57:08Z</time></trkpt><trkpt lat="44.12927096128608" lon="4.103749759114182"><ele>167.0</ele><time>2026-04-03T10:57:09Z</time></trkpt><trkpt lat="44.12931333590772" lon="4.103946097021147"><ele>166.75</ele><time>2026-04-03T10:57:10Z</time></trkpt><trkpt lat="44.12932887162391" lon="4.104150227823229"><ele>166.5</ele><time>2026-04-03T10:57:11Z</time></trkpt><trkpt lat="44.1293445207672" lon="4.104349253248354"><ele>166.25</ele><time>2026-04-03T10:57:12Z</time></trkpt><trkpt lat="44.12938770431941" lon="4.104541838018761"><ele>166.0</ele><time>2026-04-03T10:57:13Z</time></trkpt><trkpt lat="44.12940292230441" lon="4.104731197052703"><ele>165.75</ele><time>2026-04-03T10:57:14Z</time></trkpt><trkpt lat="44.129425892348934" lon="4.104923154564258"><ele>165.5</ele><time>2026-04-03T10:57:15Z</time></trkpt><trkpt lat="44.12944283605462" lon="4.105118774554204"><ele>165.25</ele><time>2026-04-03T10:57:16Z</time></trkpt><trkpt lat="44.12946002634648" lon="4.105317173237147"><ele>165.0</ele><time>2026-04-03T10:57:17Z</time></trkpt><trkpt lat="44.12946859850379" lon="4.1055108066967865"><ele>165.0</ele><time>2026-04-03T10:57:18Z</time></trkpt><trkpt lat="44.12947072531202" lon="4.105681416617128"><ele>165.0</ele><time>2026-04-03T10:57:19Z</time></trkpt><trkpt lat="44.12946760332503" lon="4.105815837931947"><ele>165.0</ele><time>2026-04-03T10:57:20Z</time></trkpt><trkpt lat="44.129432464421136" lon="4.105936865339621"><ele>165.0</ele><time>2026-04-03T10:57:21Z</time></trkpt><trkpt lat="44.12937361012996" lon="4.106038825661384"><ele>165.0</ele><time>2026-04-03T10:57:22Z</time></trkpt><trkpt lat="44.12929985595853" lon="4.106150746546954"><ele>165.2</ele><time>2026-04-03T10:57:23Z</time></trkpt><trkpt lat="44.129248099893424" lon="4.106278777916106"><ele>165.4</ele><time>2026-04-03T10:57:24Z</time></trkpt><trkpt lat="44.12924132903801" lon="4.106419918944176"><ele>165.60000000000002</ele><time>2026-04-03T10:57:25Z</time></trkpt><trkpt lat="44.129269276908694" lon="4.106567038709246"><ele>165.8</ele><time>2026-04-03T10:57:26Z</time></trkpt><trkpt lat="44.129327433101594" lon="4.106703420676538"><ele>166.0</ele><time>2026-04-03T10:57:27Z</time></trkpt><trkpt lat="44.12941083019088" lon="4.106800077642588"><ele>166.4</ele><time>2026-04-03T10:57:28Z</time></trkpt><trkpt lat="44.129493034074315" lon="4.106875431798077"><ele>166.8</ele><time>2026-04-03T10:57:29Z</time></trkpt><trkpt lat="44.12957373033018" lon="4.106873183004089"><ele>167.20000000000002</ele><time>2026-04-03T10:57:30Z</time></trkpt><trkpt lat="44.1296493330694" lon="4.106874050345187"><ele>167.60000000000002</ele><time>2026-04-03T10:57:31Z</time></trkpt><trkpt lat="44.129736243336836" lon="4.106873020030068"><ele>168.0</ele><time>2026-04-03T10:57:32Z</time></trkpt><trkpt lat="44.12984740512387" lon="4.1069076761856"><ele>168.0</ele><time>2026-04-03T10:57:33Z</time></trkpt><trkpt lat="44.12995654843357" lon="4.107001221097752"><ele>168.0</ele><time>2026-04-03T10:57:34Z</time></trkpt><trkpt lat="44.13006512628742" lon="4.1071396616568485"><ele>168.0</ele><time>2026-04-03T10:57:35Z</time></trkpt><trkpt lat="44.130144302602524" lon="4.1073190990529005"><ele>168.0</ele><time>2026-04-03T10:57:36Z</time></trkpt><trkpt lat="44.13023788089553" lon="4.107488972046583"><ele>168.66666666666666</ele><time>2026-04-03T10:57:37Z</time></trkpt><trkpt lat="44.13030577676198" lon="4.107675848387335"><ele>169.33333333333331</ele><time>2026-04-03T10:57:38Z</time></trkpt><trkpt lat="44.13037561627997" lon="4.1078620574799825"><ele>170.0</ele><time>2026-04-03T10:57:39Z</time></trkpt><trkpt lat="44.13044849938851" lon="4.108043804809048"><ele>170.0</ele><time>2026-04-03T10:57:40Z</time></trkpt><trkpt lat="44.13051084343914" lon="4.1082347640279275"><ele>170.0</ele><time>2026-04-03T10:57:41Z</time></trkpt><trkpt lat="44.130550264346624" lon="4.108445868857065"><ele>170.0</ele><time>2026-04-03T10:57:42Z</time></trkpt><trkpt lat="44.13057609537702" lon="4.108669120253368"><ele>171.0</ele><time>2026-04-03T10:57:43Z</time></trkpt><trkpt lat="44.13060520664623" lon="4.108899300757686"><ele>172.0</ele><time>2026-04-03T10:57:44Z</time></trkpt><trkpt lat="44.130633005946336" lon="4.10911059412004"><ele>173.0</ele><time>2026-04-03T10:57:45Z</time></trkpt><trkpt lat="44.13066562275643" lon="4.109332391799889"><ele>173.66666666666666</ele><time>2026-04-03T10:57:46Z</time></trkpt><trkpt lat="44.13069554844836" lon="4.1095701740012585"><ele>174.33333333333334</ele><time>2026-04-03T10:57:47Z</time></trkpt><trkpt lat="44.13072249379404" lon="4.109795973997426"><ele>175.0</ele><time>2026-04-03T10:57:48Z</time></trkpt><trkpt lat="44.13075121037633" lon="4.110028929365098"><ele>175.33333333333334</ele><time>2026-04-03T10:57:49Z</time></trkpt><trkpt lat="44.13077547332339" lon="4.1102667368252614"><ele>175.66666666666666</ele><time>2026-04-03T10:57:50Z</time></trkpt><trkpt lat="44.13079556754267" lon="4.110510854295733"><ele>176.0</ele><time>2026-04-03T10:57:51Z</time></trkpt><trkpt lat="44.130811651365875" lon="4.110756029485462"><ele>176.0</ele><time>2026-04-03T10:57:52Z</time></trkpt><trkpt lat="44.13081716194857" lon="4.111006600570671"><ele>176.0</ele><time>2026-04-03T10:57:53Z</time></trkpt><trkpt lat="44.130788749698816" lon="4.11125336960218"><ele>176.0</ele><time>2026-04-03T10:57:54Z</time></trkpt><trkpt lat="44.13076808197547" lon="4.111501943345601"><ele>175.33333333333331</ele><time>2026-04-03T10:57:55Z</time></trkpt><trkpt lat="44.13074210509271" lon="4.111747561364928"><ele>174.66666666666666</ele><time>2026-04-03T10:57:56Z</time></trkpt><trkpt lat="44.130712216139784" lon="4.111992879681634"><ele>174.0</ele><time>2026-04-03T10:57:57Z</time></trkpt><trkpt lat="44.13068110807779" lon="4.112242188899005"><ele>173.0</ele><time>2026-04-03T10:57:58Z</time></trkpt><trkpt lat="44.13066659455794" lon="4.112491527801306"><ele>172.0</ele><time>2026-04-03T10:57:59Z</time></trkpt><trkpt lat="44.13064491666102" lon="4.112739885068221"><ele>171.0</ele><time>2026-04-03T10:58:00Z</time></trkpt><trkpt lat="44.13063751353753" lon="4.112991584861972"><ele>170.33333333333334</ele><time>2026-04-03T10:58:01Z</time></trkpt><trkpt lat="44.13062664867629" lon="4.1132469487448455"><ele>169.66666666666669</ele><time>2026-04-03T10:58:02Z</time></trkpt><trkpt lat="44.130621328332104" lon="4.113502905331835"><ele>169.0</ele><time>2026-04-03T10:58:03Z</time></trkpt><trkpt lat="44.13060810267419" lon="4.1137614913244835"><ele>169.0</ele><time>2026-04-03T10:58:04Z</time></trkpt><trkpt lat="44.130584618819384" lon="4.114028845671965"><ele>169.0</ele><time>2026-04-03T10:58:05Z</time></trkpt><trkpt lat="44.13055115149027" lon="4.1142954447413995"><ele>169.0</ele><time>2026-04-03T10:58:06Z</time></trkpt><trkpt lat="44.13049624421631" lon="4.1145588921727985"><ele>168.0</ele><time>2026-04-03T10:58:07Z</time></trkpt><trkpt lat="44.13044009518021" lon="4.114820311956221"><ele>167.0</ele><time>2026-04-03T10:58:08Z</time></trkpt><trkpt lat="44.130394279432736" lon="4.115091355792365"><ele>166.0</ele><time>2026-04-03T10:58:09Z</time></trkpt><trkpt lat="44.13037354293218" lon="4.115374284824113"><ele>164.33333333333334</ele><time>2026-04-03T10:58:10Z</time></trkpt><trkpt lat="44.13037767872608" lon="4.115662163766921"><ele>162.66666666666666</ele><time>2026-04-03T10:58:11Z</time></trkpt><trkpt lat="44.130409954834946" lon="4.115945609813473"><ele>161.0</ele><time>2026-04-03T10:58:12Z</time></trkpt><trkpt lat="44.13044974502353" lon="4.116222574478157"><ele>160.33333333333331</ele><time>2026-04-03T10:58:13Z</time></trkpt><trkpt lat="44.13048470546291" lon="4.116490115078925"><ele>159.66666666666666</ele><time>2026-04-03T10:58:14Z</time></trkpt><trkpt lat="44.13051273294718" lon="4.116742929745603"><ele>159.0</ele><time>2026-04-03T10:58:15Z</time></trkpt><trkpt lat="44.13053520199937" lon="4.116994583288329"><ele>159.0</ele><time>2026-04-03T10:58:16Z</time></trkpt><trkpt lat="44.13056308875515" lon="4.117246845378654"><ele>159.0</ele><time>2026-04-03T10:58:17Z</time></trkpt><trkpt lat="44.130589592772836" lon="4.1175029172974495"><ele>159.0</ele><time>2026-04-03T10:58:18Z</time></trkpt><trkpt lat="44.13062547940451" lon="4.117752808065518"><ele>159.0</ele><time>2026-04-03T10:58:19Z</time></trkpt><trkpt lat="44.130645972721446" lon="4.1180041236287455"><ele>159.0</ele><time>2026-04-03T10:58:20Z</time></trkpt><trkpt lat="44.13066013247753" lon="4.118260172387201"><ele>159.0</ele><time>2026-04-03T10:58:21Z</time></trkpt><trkpt lat="44.13067640422502" lon="4.118517227008668"><ele>159.0</ele><time>2026-04-03T10:58:22Z</time></trkpt><trkpt lat="44.13068813183267" lon="4.118783666130886"><ele>159.0</ele><time>2026-04-03T10:58:23Z</time></trkpt><trkpt lat="44.13069233200186" lon="4.119053699110794"><ele>159.0</ele><time>2026-04-03T10:58:24Z</time></trkpt><trkpt lat="44.130690231300576" lon="4.119327325529275"><ele>158.66666666666666</ele><time>2026-04-03T10:58:25Z</time></trkpt><trkpt lat="44.13068902119187" lon="4.119588403334541"><ele>158.33333333333331</ele><time>2026-04-03T10:58:26Z</time></trkpt><trkpt lat="44.130687347926916" lon="4.119833825977265"><ele>158.0</ele><time>2026-04-03T10:58:27Z</time></trkpt><trkpt lat="44.130687856190896" lon="4.120059636615931"><ele>157.33333333333331</ele><time>2026-04-03T10:58:28Z</time></trkpt><trkpt lat="44.13068516936774" lon="4.120278328895091"><ele>156.66666666666666</ele><time>2026-04-03T10:58:29Z</time></trkpt><trkpt lat="44.13068437463447" lon="4.12050012391205"><ele>156.0</ele><time>2026-04-03T10:58:30Z</time></trkpt><trkpt lat="44.13069066745057" lon="4.120719327960371"><ele>155.75</ele><time>2026-04-03T10:58:31Z</time></trkpt><trkpt lat="44.13069902367922" lon="4.1209207176943945"><ele>155.5</ele><time>2026-04-03T10:58:32Z</time></trkpt><trkpt lat="44.13070476004977" lon="4.121109893526813"><ele>155.25</ele><time>2026-04-03T10:58:33Z</time></trkpt><trkpt lat="44.13070972653504" lon="4.121291149707736"><ele>155.0</ele><time>2026-04-03T10:58:34Z</time></trkpt><trkpt lat="44.13071051876573" lon="4.12146302221618"><ele>154.75</ele><time>2026-04-03T10:58:35Z</time></trkpt><trkpt lat="44.13070635276726" lon="4.121625495731398"><ele>154.5</ele><time>2026-04-03T10:58:36Z</time></trkpt><trkpt lat="44.13069757046908" lon="4.1217857441152965"><ele>154.25</ele><time>2026-04-03T10:58:37Z</time></trkpt><trkpt lat="44.130671281013264" lon="4.121960212376357"><ele>154.0</ele><time>2026-04-03T10:58:38Z</time></trkpt><trkpt lat="44.130638504155485" lon="4.122158124106741"><ele>154.0</ele><time>2026-04-03T10:58:39Z</time></trkpt><trkpt lat="44.13062534990876" lon="4.12235948041108"><ele>154.0</ele><time>2026-04-03T10:58:40Z</time></trkpt><trkpt lat="44.13059198671363" lon="4.122543087628851"><ele>154.0</ele><time>2026-04-03T10:58:41Z</time></trkpt><trkpt lat="44.13055674931325" lon="4.122716734034892"><ele>154.0</ele><time>2026-04-03T10:58:42Z</time></trkpt><trkpt lat="44.13052183997515" lon="4.122890426415197"><ele>153.75</ele><time>2026-04-03T10:58:43Z</time></trkpt><trkpt lat="44.13048994107547" lon="4.123062876211404"><ele>153.5</ele><time>2026-04-03T10:58:44Z</time></trkpt><trkpt lat="44.13046195119676" lon="4.123232913478709"><ele>153.25</ele><time>2026-04-03T10:58:45Z</time></trkpt><trkpt lat="44.13043333209947" lon="4.1234134210449644"><ele>153.0</ele><time>2026-04-03T10:58:46Z</time></trkpt><trkpt lat="44.13040624446073" lon="4.123612711174645"><ele>153.0</ele><time>2026-04-03T10:58:47Z</time></trkpt><trkpt lat="44.13038630221613" lon="4.123828568537506"><ele>153.0</ele><time>2026-04-03T10:58:48Z</time></trkpt><trkpt lat="44.13036623435661" lon="4.124055437068509"><ele>153.0</ele><time>2026-04-03T10:58:49Z</time></trkpt><trkpt lat="44.13034331878522" lon="4.124289748702578"><ele>153.0</ele><time>2026-04-03T10:58:50Z</time></trkpt><trkpt lat="44.13031523864482" lon="4.124532558779661"><ele>153.0</ele><time>2026-04-03T10:58:51Z</time></trkpt><trkpt lat="44.13029055158653" lon="4.124777594549357"><ele>153.0</ele><time>2026-04-03T10:58:52Z</time></trkpt><trkpt lat="44.13026641777944" lon="4.125026013967061"><ele>152.66666666666666</ele><time>2026-04-03T10:58:53Z</time></trkpt><trkpt lat="44.1302511100994" lon="4.125271676092043"><ele>152.33333333333331</ele><time>2026-04-03T10:58:54Z</time></trkpt><trkpt lat="44.13024038269237" lon="4.125511121760722"><ele>152.0</ele><time>2026-04-03T10:58:55Z</time></trkpt><trkpt lat="44.130227276410714" lon="4.125741989538621"><ele>152.0</ele><time>2026-04-03T10:58:56Z</time></trkpt><trkpt lat="44.13021410511729" lon="4.12596747093336"><ele>152.0</ele><time>2026-04-03T10:58:57Z</time></trkpt><trkpt lat="44.130201326324155" lon="4.126185640135936"><ele>152.0</ele><time>2026-04-03T10:58:58Z</time></trkpt><trkpt lat="44.13019027144706" lon="4.126403498027935"><ele>152.0</ele><time>2026-04-03T10:58:59Z</time></trkpt><trkpt lat="44.13017855583527" lon="4.1266249837241515"><ele>152.0</ele><time>2026-04-03T10:59:00Z</time></trkpt><trkpt lat="44.130169589526815" lon="4.126850769223173"><ele>152.0</ele><time>2026-04-03T10:59:01Z</time></trkpt><trkpt lat="44.13015730569167" lon="4.127079519152854"><ele>152.0</ele><time>2026-04-03T10:59:02Z</time></trkpt><trkpt lat="44.13013675728282" lon="4.127309435115825"><ele>152.0</ele><time>2026-04-03T10:59:03Z</time></trkpt><trkpt lat="44.13010831809327" lon="4.127541245920302"><ele>152.0</ele><time>2026-04-03T10:59:04Z</time></trkpt><trkpt lat="44.13007134413569" lon="4.127776231386322"><ele>152.0</ele><time>2026-04-03T10:59:05Z</time></trkpt><trkpt lat="44.13003037727959" lon="4.12801649221827"><ele>152.0</ele><time>2026-04-03T10:59:06Z</time></trkpt><trkpt lat="44.12999108282928" lon="4.128259685256238"><ele>152.0</ele><time>2026-04-03T10:59:07Z</time></trkpt><trkpt lat="44.129952870124" lon="4.128504074676492"><ele>152.0</ele><time>2026-04-03T10:59:08Z</time></trkpt><trkpt lat="44.129914159006354" lon="4.128748614656601"><ele>152.0</ele><time>2026-04-03T10:59:09Z</time></trkpt><trkpt lat="44.12987804130586" lon="4.128996126902204"><ele>152.0</ele><time>2026-04-03T10:59:10Z</time></trkpt><trkpt lat="44.12984580079441" lon="4.12924042662571"><ele>152.0</ele><time>2026-04-03T10:59:11Z</time></trkpt><trkpt lat="44.1298161556461" lon="4.129485158872916"><ele>152.0</ele><time>2026-04-03T10:59:12Z</time></trkpt><trkpt lat="44.12978225719271" lon="4.129728693838407"><ele>152.0</ele><time>2026-04-03T10:59:13Z</time></trkpt><trkpt lat="44.129750996619286" lon="4.129965851943747"><ele>152.66666666666666</ele><time>2026-04-03T10:59:14Z</time></trkpt><trkpt lat="44.129717618107726" lon="4.130205018913236"><ele>153.33333333333334</ele><time>2026-04-03T10:59:15Z</time></trkpt><trkpt lat="44.129681355524355" lon="4.130445649435371"><ele>154.0</ele><time>2026-04-03T10:59:16Z</time></trkpt><trkpt lat="44.12965098370199" lon="4.1306871671082"><ele>153.33333333333334</ele><time>2026-04-03T10:59:17Z</time></trkpt><trkpt lat="44.12961869415574" lon="4.130929497706195"><ele>152.66666666666666</ele><time>2026-04-03T10:59:18Z</time></trkpt><trkpt lat="44.129578873801606" lon="4.131170533220092"><ele>152.0</ele><time>2026-04-03T10:59:19Z</time></trkpt><trkpt lat="44.129526339090816" lon="4.131412589663977"><ele>152.66666666666666</ele><time>2026-04-03T10:59:20Z</time></trkpt><trkpt lat="44.12945725203059" lon="4.131653698017834"><ele>153.33333333333334</ele><time>2026-04-03T10:59:21Z</time></trkpt><trkpt lat="44.1293723683571" lon="4.131879268866394"><ele>154.0</ele><time>2026-04-03T10:59:22Z</time></trkpt><trkpt lat="44.12928638898295" lon="4.132105259176718"><ele>154.0</ele><time>2026-04-03T10:59:23Z</time></trkpt><trkpt lat="44.12920114450496" lon="4.132344346948016"><ele>154.0</ele><time>2026-04-03T10:59:24Z</time></trkpt><trkpt lat="44.12911788317514" lon="4.1325804425525"><ele>154.0</ele><time>2026-04-03T10:59:25Z</time></trkpt><trkpt lat="44.129072652529594" lon="4.132850486639167"><ele>153.66666666666669</ele><time>2026-04-03T10:59:26Z</time></trkpt><trkpt lat="44.12900548380635" lon="4.133110125821438"><ele>153.33333333333334</ele><time>2026-04-03T10:59:27Z</time></trkpt><trkpt lat="44.1289539856074" lon="4.1333690991430005"><ele>153.0</ele><time>2026-04-03T10:59:28Z</time></trkpt><trkpt lat="44.128917450304826" lon="4.133624017149316"><ele>148.66666666666666</ele><time>2026-04-03T10:59:29Z</time></trkpt><trkpt lat="44.12886066199018" lon="4.13387090841749"><ele>144.33333333333331</ele><time>2026-04-03T10:59:30Z</time></trkpt><trkpt lat="44.12880720179727" lon="4.134128762426276"><ele>140.0</ele><time>2026-04-03T10:59:31Z</time></trkpt><trkpt lat="44.12875606862394" lon="4.134385780516936"><ele>139.66666666666666</ele><time>2026-04-03T10:59:32Z</time></trkpt><trkpt lat="44.12870817702055" lon="4.134636739429966"><ele>139.33333333333334</ele><time>2026-04-03T10:59:33Z</time></trkpt><trkpt lat="44.12867015919623" lon="4.134891616189927"><ele>139.0</ele><time>2026-04-03T10:59:34Z</time></trkpt><trkpt lat="44.12864034975427" lon="4.135151433735103"><ele>140.0</ele><time>2026-04-03T10:59:35Z</time></trkpt><trkpt lat="44.128608550526266" lon="4.135426155840086"><ele>141.0</ele><time>2026-04-03T10:59:36Z</time></trkpt><trkpt lat="44.12857555132611" lon="4.13569434159124"><ele>142.0</ele><time>2026-04-03T10:59:37Z</time></trkpt><trkpt lat="44.12854191574123" lon="4.135961621966485"><ele>143.66666666666669</ele><time>2026-04-03T10:59:38Z</time></trkpt><trkpt lat="44.12850711557104" lon="4.136237404065069"><ele>145.33333333333334</ele><time>2026-04-03T10:59:39Z</time></trkpt><trkpt lat="44.12845646307299" lon="4.136506869283172"><ele>147.0</ele><time>2026-04-03T10:59:40Z</time></trkpt><trkpt lat="44.12842098093011" lon="4.136779718333185"><ele>147.0</ele><time>2026-04-03T10:59:41Z</time></trkpt><trkpt lat="44.12839886204714" lon="4.137076454944984"><ele>147.0</ele><time>2026-04-03T10:59:42Z</time></trkpt><trkpt lat="44.128362777874194" lon="4.137354560138051"><ele>147.0</ele><time>2026-04-03T10:59:43Z</time></trkpt><trkpt lat="44.12832253189742" lon="4.137629017828802"><ele>148.0</ele><time>2026-04-03T10:59:44Z</time></trkpt><trkpt lat="44.12827732999976" lon="4.137897029622705"><ele>149.0</ele><time>2026-04-03T10:59:45Z</time></trkpt><trkpt lat="44.128243085226174" lon="4.13818157395716"><ele>150.0</ele><time>2026-04-03T10:59:46Z</time></trkpt><trkpt lat="44.128213458971224" lon="4.138455780630745"><ele>152.33333333333334</ele><time>2026-04-03T10:59:47Z</time></trkpt><trkpt lat="44.1282154614797" lon="4.138733897886709"><ele>154.66666666666669</ele><time>2026-04-03T10:59:48Z</time></trkpt><trkpt lat="44.1281967792074" lon="4.139020570416193"><ele>157.0</ele><time>2026-04-03T10:59:49Z</time></trkpt><trkpt lat="44.12820988846211" lon="4.139313117658511"><ele>158.33333333333334</ele><time>2026-04-03T10:59:50Z</time></trkpt><trkpt lat="44.12823529629619" lon="4.139606157801264"><ele>159.66666666666666</ele><time>2026-04-03T10:59:51Z</time></trkpt><trkpt lat="44.12826384497418" lon="4.13989689297734"><ele>161.0</ele><time>2026-04-03T10:59:52Z</time></trkpt><trkpt lat="44.12829165854147" lon="4.140193333771435"><ele>161.33333333333331</ele><time>2026-04-03T10:59:53Z</time></trkpt><trkpt lat="44.12832212695455" lon="4.140481109260351"><ele>161.66666666666666</ele><time>2026-04-03T10:59:54Z</time></trkpt><trkpt lat="44.128365735942765" lon="4.140777703164859"><ele>162.0</ele><time>2026-04-03T10:59:55Z</time></trkpt><trkpt lat="44.1284302167086" lon="4.141069225189665"><ele>163.33333333333334</ele><time>2026-04-03T10:59:56Z</time></trkpt><trkpt lat="44.12852187447797" lon="4.141336801046218"><ele>164.66666666666669</ele><time>2026-04-03T10:59:57Z</time></trkpt><trkpt lat="44.128639524733266" lon="4.1415845375698135"><ele>166.0</ele><time>2026-04-03T10:59:58Z</time></trkpt><trkpt lat="44.128763946877044" lon="4.141824444790607"><ele>168.66666666666669</ele><time>2026-04-03T10:59:59Z</time></trkpt><trkpt lat="44.12887657796988" lon="4.14207560824209"><ele>171.33333333333334</ele><time>2026-04-03T11:00:00Z</time></trkpt><trkpt lat="44.128933477890754" lon="4.142339067534876"><ele>174.0</ele><time>2026-04-03T11:00:01Z</time></trkpt><trkpt lat="44.12898620470096" lon="4.14259330270781"><ele>174.66666666666666</ele><time>2026-04-03T11:00:02Z</time></trkpt><trkpt lat="44.129031779267" lon="4.14284014406818"><ele>175.33333333333331</ele><time>2026-04-03T11:00:03Z</time></trkpt><trkpt lat="44.12906783169076" lon="4.1430866195129035"><ele>176.0</ele><time>2026-04-03T11:00:04Z</time></trkpt><trkpt lat="44.12909493553995" lon="4.143334886852605"><ele>176.0</ele><time>2026-04-03T11:00:05Z</time></trkpt><trkpt lat="44.12912111392648" lon="4.143586917663792"><ele>176.0</ele><time>2026-04-03T11:00:06Z</time></trkpt><trkpt lat="44.1291232839783" lon="4.143843692777887"><ele>176.0</ele><time>2026-04-03T11:00:07Z</time></trkpt><trkpt lat="44.12909717628733" lon="4.144107552239668"><ele>177.66666666666666</ele><time>2026-04-03T11:00:08Z</time></trkpt><trkpt lat="44.12907690045556" lon="4.144376682567373"><ele>179.33333333333334</ele><time>2026-04-03T11:00:09Z</time></trkpt><trkpt lat="44.129055761289784" lon="4.144645909008686"><ele>181.0</ele><time>2026-04-03T11:00:10Z</time></trkpt><trkpt lat="44.12903646824374" lon="4.144913389317092"><ele>185.0</ele><time>2026-04-03T11:00:11Z</time></trkpt><trkpt lat="44.1290305980916" lon="4.145193790985029"><ele>189.0</ele><time>2026-04-03T11:00:12Z</time></trkpt><trkpt lat="44.129025961349505" lon="4.145494127100543"><ele>193.0</ele><time>2026-04-03T11:00:13Z</time></trkpt><trkpt lat="44.1290325816694" lon="4.145803794196143"><ele>193.0</ele><time>2026-04-03T11:00:14Z</time></trkpt><trkpt lat="44.129035101060005" lon="4.146101688198473"><ele>193.0</ele><time>2026-04-03T11:00:15Z</time></trkpt><trkpt lat="44.129028070393204" lon="4.146389367858051"><ele>193.0</ele><time>2026-04-03T11:00:16Z</time></trkpt><trkpt lat="44.12901713107277" lon="4.1466691370861435"><ele>191.66666666666666</ele><time>2026-04-03T11:00:17Z</time></trkpt><trkpt lat="44.12902440868389" lon="4.1469483220075425"><ele>190.33333333333331</ele><time>2026-04-03T11:00:18Z</time></trkpt><trkpt lat="44.129052580100506" lon="4.147226526270561"><ele>189.0</ele><time>2026-04-03T11:00:19Z</time></trkpt><trkpt lat="44.12909301965846" lon="4.147500741608055"><ele>189.0</ele><time>2026-04-03T11:00:20Z</time></trkpt><trkpt lat="44.12914555156065" lon="4.147777513242447"><ele>189.0</ele><time>2026-04-03T11:00:21Z</time></trkpt><trkpt lat="44.129196171389296" lon="4.148050373823809"><ele>189.0</ele><time>2026-04-03T11:00:22Z</time></trkpt><trkpt lat="44.12924196003761" lon="4.148321419200241"><ele>189.0</ele><time>2026-04-03T11:00:23Z</time></trkpt><trkpt lat="44.12928557104667" lon="4.148592022788299"><ele>189.0</ele><time>2026-04-03T11:00:24Z</time></trkpt><trkpt lat="44.129328582724995" lon="4.148861485148394"><ele>189.0</ele><time>2026-04-03T11:00:25Z</time></trkpt><trkpt lat="44.129369087639596" lon="4.1491299103802115"><ele>190.0</ele><time>2026-04-03T11:00:26Z</time></trkpt><trkpt lat="44.129402479348954" lon="4.149391765037576"><ele>191.0</ele><time>2026-04-03T11:00:27Z</time></trkpt><trkpt lat="44.129434421861305" lon="4.149652695859355"><ele>192.0</ele><time>2026-04-03T11:00:28Z</time></trkpt><trkpt lat="44.12946236409525" lon="4.149908588033586"><ele>192.0</ele><time>2026-04-03T11:00:29Z</time></trkpt><trkpt lat="44.129491219035636" lon="4.150158642536084"><ele>192.0</ele><time>2026-04-03T11:00:30Z</time></trkpt><trkpt lat="44.12951866098003" lon="4.150393748223687"><ele>192.0</ele><time>2026-04-03T11:00:31Z</time></trkpt><trkpt lat="44.12954504725916" lon="4.150603920118073"><ele>192.25</ele><time>2026-04-03T11:00:32Z</time></trkpt><trkpt lat="44.12957697468022" lon="4.150785564748623"><ele>192.5</ele><time>2026-04-03T11:00:33Z</time></trkpt><trkpt lat="44.12958636167844" lon="4.150942388170199"><ele>192.75</ele><time>2026-04-03T11:00:34Z</time></trkpt><trkpt lat="44.12955216341129" lon="4.151086763685509"><ele>193.0</ele><time>2026-04-03T11:00:35Z</time></trkpt><trkpt lat="44.12947970674357" lon="4.151199596493532"><ele>193.0</ele><time>2026-04-03T11:00:36Z</time></trkpt><trkpt lat="44.129376596863786" lon="4.15130127462871"><ele>193.0</ele><time>2026-04-03T11:00:37Z</time></trkpt><trkpt lat="44.12923961140075" lon="4.151403988507659"><ele>193.0</ele><time>2026-04-03T11:00:38Z</time></trkpt><trkpt lat="44.12906763545529" lon="4.151467165301868"><ele>193.66666666666666</ele><time>2026-04-03T11:00:39Z</time></trkpt><trkpt lat="44.12888381624761" lon="4.1515211001938495"><ele>194.33333333333331</ele><time>2026-04-03T11:00:40Z</time></trkpt><trkpt lat="44.12868284775694" lon="4.151568040652399"><ele>195.0</ele><time>2026-04-03T11:00:41Z</time></trkpt><trkpt lat="44.12849246534903" lon="4.151625336853038"><ele>195.33333333333331</ele><time>2026-04-03T11:00:42Z</time></trkpt><trkpt lat="44.12828635933092" lon="4.151671678908232"><ele>195.66666666666666</ele><time>2026-04-03T11:00:43Z</time></trkpt><trkpt lat="44.128089780292854" lon="4.151677562126773"><ele>196.0</ele><time>2026-04-03T11:00:44Z</time></trkpt><trkpt lat="44.12790543824907" lon="4.151697687623621"><ele>196.0</ele><time>2026-04-03T11:00:45Z</time></trkpt><trkpt lat="44.12774271438614" lon="4.151628975383926"><ele>196.0</ele><time>2026-04-03T11:00:46Z</time></trkpt><trkpt lat="44.12757054816767" lon="4.151547461859054"><ele>196.0</ele><time>2026-04-03T11:00:47Z</time></trkpt><trkpt lat="44.127397769702306" lon="4.151406953031856"><ele>197.33333333333331</ele><time>2026-04-03T11:00:48Z</time></trkpt><trkpt lat="44.12726837401452" lon="4.151226638876773"><ele>198.66666666666669</ele><time>2026-04-03T11:00:49Z</time></trkpt><trkpt lat="44.127119792364674" lon="4.151090708219904"><ele>200.0</ele><time>2026-04-03T11:00:50Z</time></trkpt><trkpt lat="44.126981033297895" lon="4.150959370970876"><ele>200.0</ele><time>2026-04-03T11:00:51Z</time></trkpt><trkpt lat="44.12681706696685" lon="4.150846770782695"><ele>200.0</ele><time>2026-04-03T11:00:52Z</time></trkpt><trkpt lat="44.12665154041269" lon="4.150752671525187"><ele>200.0</ele><time>2026-04-03T11:00:53Z</time></trkpt><trkpt lat="44.126478845452766" lon="4.1506984718851045"><ele>200.33333333333334</ele><time>2026-04-03T11:00:54Z</time></trkpt><trkpt lat="44.12628961412497" lon="4.150679944841164"><ele>200.66666666666669</ele><time>2026-04-03T11:00:55Z</time></trkpt><trkpt lat="44.12609540156201" lon="4.150668926388685"><ele>201.0</ele><time>2026-04-03T11:00:56Z</time></trkpt><trkpt lat="44.12590974768528" lon="4.150641398513526"><ele>201.0</ele><time>2026-04-03T11:00:57Z</time></trkpt><trkpt lat="44.12573123138359" lon="4.150600994927467"><ele>201.0</ele><time>2026-04-03T11:00:58Z</time></trkpt><trkpt lat="44.125542835866" lon="4.150551909798007"><ele>201.0</ele><time>2026-04-03T11:00:59Z</time></trkpt><trkpt lat="44.1253536397223" lon="4.150497689121431"><ele>201.0</ele><time>2026-04-03T11:01:00Z</time></trkpt><trkpt lat="44.12519607945944" lon="4.150411063049215"><ele>201.0</ele><time>2026-04-03T11:01:01Z</time></trkpt><trkpt lat="44.12504680032249" lon="4.150317065887354"><ele>201.0</ele><time>2026-04-03T11:01:02Z</time></trkpt><trkpt lat="44.12488728002152" lon="4.150219615728788"><ele>202.66666666666669</ele><time>2026-04-03T11:01:03Z</time></trkpt><trkpt lat="44.12474292234538" lon="4.15011021508678"><ele>204.33333333333334</ele><time>2026-04-03T11:01:04Z</time></trkpt><trkpt lat="44.12460365893087" lon="4.150010813689101"><ele>206.0</ele><time>2026-04-03T11:01:05Z</time></trkpt><trkpt lat="44.12445761096441" lon="4.14990028878228"><ele>205.66666666666669</ele><time>2026-04-03T11:01:06Z</time></trkpt><trkpt lat="44.12431348988178" lon="4.149769451763016"><ele>205.33333333333331</ele><time>2026-04-03T11:01:07Z</time></trkpt><trkpt lat="44.12417120555941" lon="4.1496308973798435"><ele>205.0</ele><time>2026-04-03T11:01:08Z</time></trkpt><trkpt lat="44.124048429426075" lon="4.149464931551917"><ele>205.0</ele><time>2026-04-03T11:01:09Z</time></trkpt><trkpt lat="44.12390843228249" lon="4.149346769972828"><ele>205.0</ele><time>2026-04-03T11:01:10Z</time></trkpt><trkpt lat="44.12379093436092" lon="4.149201660613703"><ele>205.0</ele><time>2026-04-03T11:01:11Z</time></trkpt><trkpt lat="44.12367017571067" lon="4.149078297416602"><ele>202.66666666666666</ele><time>2026-04-03T11:01:12Z</time></trkpt><trkpt lat="44.12355329797899" lon="4.14893673456107"><ele>200.33333333333331</ele><time>2026-04-03T11:01:13Z</time></trkpt><trkpt lat="44.12342501180194" lon="4.148819368558494"><ele>198.0</ele><time>2026-04-03T11:01:14Z</time></trkpt><trkpt lat="44.12326027508666" lon="4.148717515688323"><ele>197.33333333333331</ele><time>2026-04-03T11:01:15Z</time></trkpt><trkpt lat="44.12309767523993" lon="4.148611107851081"><ele>196.66666666666666</ele><time>2026-04-03T11:01:16Z</time></trkpt><trkpt lat="44.122943099561255" lon="4.148473557291935"><ele>196.0</ele><time>2026-04-03T11:01:17Z</time></trkpt><trkpt lat="44.1227816157974" lon="4.148349759747693"><ele>196.0</ele><time>2026-04-03T11:01:18Z</time></trkpt><trkpt lat="44.12264661248714" lon="4.148243276961347"><ele>196.0</ele><time>2026-04-03T11:01:19Z</time></trkpt><trkpt lat="44.12249867283545" lon="4.148134852992547"><ele>196.0</ele><time>2026-04-03T11:01:20Z</time></trkpt><trkpt lat="44.12232698629421" lon="4.14801130679095"><ele>192.0</ele><time>2026-04-03T11:01:21Z</time></trkpt><trkpt lat="44.122167070770566" lon="4.147897571969093"><ele>188.0</ele><time>2026-04-03T11:01:22Z</time></trkpt><trkpt lat="44.12198484428563" lon="4.147762340424935"><ele>184.0</ele><time>2026-04-03T11:01:23Z</time></trkpt><trkpt lat="44.121807646665964" lon="4.147628088542606"><ele>184.0</ele><time>2026-04-03T11:01:24Z</time></trkpt><trkpt lat="44.12161538897354" lon="4.147488094805778"><ele>184.0</ele><time>2026-04-03T11:01:25Z</time></trkpt><trkpt lat="44.121425111538926" lon="4.1473478794929814"><ele>184.0</ele><time>2026-04-03T11:01:26Z</time></trkpt><trkpt lat="44.12123647768334" lon="4.147219212222853"><ele>181.66666666666669</ele><time>2026-04-03T11:01:27Z</time></trkpt><trkpt lat="44.12105245708268" lon="4.147085920147337"><ele>179.33333333333334</ele><time>2026-04-03T11:01:28Z</time></trkpt><trkpt lat="44.1208693413738" lon="4.146955989062189"><ele>177.0</ele><time>2026-04-03T11:01:29Z</time></trkpt><trkpt lat="44.120676397639244" lon="4.146822407928596"><ele>176.66666666666666</ele><time>2026-04-03T11:01:30Z</time></trkpt><trkpt lat="44.12048253599853" lon="4.1466818013726074"><ele>176.33333333333331</ele><time>2026-04-03T11:01:31Z</time></trkpt><trkpt lat="44.120294982305886" lon="4.146545769985028"><ele>176.0</ele><time>2026-04-03T11:01:32Z</time></trkpt><trkpt lat="44.120114159688754" lon="4.146417978300966"><ele>175.33333333333331</ele><time>2026-04-03T11:01:33Z</time></trkpt><trkpt lat="44.11991811975377" lon="4.146279413144773"><ele>174.66666666666666</ele><time>2026-04-03T11:01:34Z</time></trkpt><trkpt lat="44.11973509147695" lon="4.146144792688554"><ele>174.0</ele><time>2026-04-03T11:01:35Z</time></trkpt><trkpt lat="44.119560252351484" lon="4.146019292458413"><ele>174.0</ele><time>2026-04-03T11:01:36Z</time></trkpt><trkpt lat="44.11938517415071" lon="4.145894362041912"><ele>174.0</ele><time>2026-04-03T11:01:37Z</time></trkpt><trkpt lat="44.11920609572713" lon="4.145772095474042"><ele>174.0</ele><time>2026-04-03T11:01:38Z</time></trkpt><trkpt lat="44.11901802183914" lon="4.145635291186993"><ele>174.66666666666666</ele><time>2026-04-03T11:01:39Z</time></trkpt><trkpt lat="44.118840107069104" lon="4.145503464167914"><ele>175.33333333333331</ele><time>2026-04-03T11:01:40Z</time></trkpt><trkpt lat="44.11868119942" lon="4.145383029592645"><ele>176.0</ele><time>2026-04-03T11:01:41Z</time></trkpt><trkpt lat="44.118545581210185" lon="4.145279073966609"><ele>176.0</ele><time>2026-04-03T11:01:42Z</time></trkpt><trkpt lat="44.11843970005315" lon="4.145197912767261"><ele>176.0</ele><time>2026-04-03T11:01:43Z</time></trkpt><trkpt lat="44.11835948366139" lon="4.145164824732689"><ele>176.0</ele><time>2026-04-03T11:01:44Z</time></trkpt><trkpt lat="44.11828443801965" lon="4.145147183046937"><ele>176.0</ele><time>2026-04-03T11:01:46Z</time></trkpt><trkpt lat="44.11822580170062" lon="4.145265595299337"><ele>176.0</ele><time>2026-04-03T11:01:48Z</time></trkpt><trkpt lat="44.11818636847393" lon="4.145387062251253"><ele>175.75</ele><time>2026-04-03T11:01:49Z</time></trkpt><trkpt lat="44.11814966068509" lon="4.145544908927474"><ele>175.5</ele><time>2026-04-03T11:01:50Z</time></trkpt><trkpt lat="44.11810306336602" lon="4.14572388946924"><ele>175.25</ele><time>2026-04-03T11:01:51Z</time></trkpt><trkpt lat="44.1180544322713" lon="4.145901723360369"><ele>175.0</ele><time>2026-04-03T11:01:52Z</time></trkpt><trkpt lat="44.11800396170698" lon="4.1460935430957715"><ele>175.0</ele><time>2026-04-03T11:01:53Z</time></trkpt><trkpt lat="44.117946316917305" lon="4.146288970463454"><ele>175.0</ele><time>2026-04-03T11:01:54Z</time></trkpt><trkpt lat="44.117896608949614" lon="4.146477332088732"><ele>175.0</ele><time>2026-04-03T11:01:55Z</time></trkpt><trkpt lat="44.117860814802846" lon="4.1466524308979"><ele>175.0</ele><time>2026-04-03T11:01:56Z</time></trkpt><trkpt lat="44.11781277334188" lon="4.146812117694979"><ele>175.6</ele><time>2026-04-03T11:01:57Z</time></trkpt><trkpt lat="44.11778413412365" lon="4.146951452958887"><ele>176.2</ele><time>2026-04-03T11:01:58Z</time></trkpt><trkpt lat="44.117720680364435" lon="4.147038026317126"><ele>176.8</ele><time>2026-04-03T11:01:59Z</time></trkpt><trkpt lat="44.117659091236156" lon="4.147086544877282"><ele>177.4</ele><time>2026-04-03T11:02:00Z</time></trkpt><trkpt lat="44.11758736097369" lon="4.1470878238045605"><ele>178.0</ele><time>2026-04-03T11:02:01Z</time></trkpt><trkpt lat="44.11753403478579" lon="4.1469465989926215"><ele>178.33333333333334</ele><time>2026-04-03T11:02:02Z</time></trkpt><trkpt lat="44.117392805511294" lon="4.1468527761589495"><ele>178.66666666666666</ele><time>2026-04-03T11:02:03Z</time></trkpt><trkpt lat="44.117250195071506" lon="4.146756663743188"><ele>179.0</ele><time>2026-04-03T11:02:04Z</time></trkpt><trkpt lat="44.11709778156044" lon="4.146653653725809"><ele>179.0</ele><time>2026-04-03T11:02:05Z</time></trkpt><trkpt lat="44.11693759233103" lon="4.146545388180796"><ele>179.0</ele><time>2026-04-03T11:02:06Z</time></trkpt><trkpt lat="44.11676986081843" lon="4.146448591744753"><ele>179.0</ele><time>2026-04-03T11:02:07Z</time></trkpt><trkpt lat="44.116614202010126" lon="4.1463435783253315"><ele>179.33333333333331</ele><time>2026-04-03T11:02:08Z</time></trkpt><trkpt lat="44.11645526325261" lon="4.14623392757463"><ele>179.66666666666666</ele><time>2026-04-03T11:02:09Z</time></trkpt><trkpt lat="44.116298804778985" lon="4.14613186025364"><ele>180.0</ele><time>2026-04-03T11:02:10Z</time></trkpt><trkpt lat="44.11613810403989" lon="4.146027960281446"><ele>180.0</ele><time>2026-04-03T11:02:11Z</time></trkpt><trkpt lat="44.11597713721766" lon="4.145918356306681"><ele>180.0</ele><time>2026-04-03T11:02:12Z</time></trkpt><trkpt lat="44.115819348293726" lon="4.1458051554915185"><ele>180.0</ele><time>2026-04-03T11:02:13Z</time></trkpt><trkpt lat="44.11566131446502" lon="4.145693230712316"><ele>180.33333333333334</ele><time>2026-04-03T11:02:14Z</time></trkpt><trkpt lat="44.11550913537836" lon="4.145590015334626"><ele>180.66666666666669</ele><time>2026-04-03T11:02:15Z</time></trkpt><trkpt lat="44.11536265355181" lon="4.145467611682054"><ele>181.0</ele><time>2026-04-03T11:02:16Z</time></trkpt><trkpt lat="44.11520036898506" lon="4.145379150670961"><ele>181.0</ele><time>2026-04-03T11:02:17Z</time></trkpt><trkpt lat="44.11505494960164" lon="4.145276589309481"><ele>181.0</ele><time>2026-04-03T11:02:18Z</time></trkpt><trkpt lat="44.114913958492885" lon="4.145194451124043"><ele>181.0</ele><time>2026-04-03T11:02:19Z</time></trkpt><trkpt lat="44.1147863603945" lon="4.1451254980647585"><ele>180.25</ele><time>2026-04-03T11:02:20Z</time></trkpt><trkpt lat="44.114662981162574" lon="4.145081650100065"><ele>179.5</ele><time>2026-04-03T11:02:21Z</time></trkpt><trkpt lat="44.114548426768124" lon="4.145147693877192"><ele>178.75</ele><time>2026-04-03T11:02:22Z</time></trkpt><trkpt lat="44.114451594485736" lon="4.145249023256042"><ele>178.0</ele><time>2026-04-03T11:02:23Z</time></trkpt><trkpt lat="44.11432684127633" lon="4.145269961108507"><ele>178.0</ele><time>2026-04-03T11:02:24Z</time></trkpt><trkpt lat="44.1141755225479" lon="4.145275724806521"><ele>178.0</ele><time>2026-04-03T11:02:25Z</time></trkpt><trkpt lat="44.114031059987255" lon="4.145288111354046"><ele>178.0</ele><time>2026-04-03T11:02:26Z</time></trkpt><trkpt lat="44.113899658477244" lon="4.145398993315928"><ele>178.25</ele><time>2026-04-03T11:02:27Z</time></trkpt><trkpt lat="44.113780554388406" lon="4.14550240198394"><ele>178.5</ele><time>2026-04-03T11:02:28Z</time></trkpt><trkpt lat="44.11363612576362" lon="4.145521517117298"><ele>178.75</ele><time>2026-04-03T11:02:29Z</time></trkpt><trkpt lat="44.113489045951376" lon="4.145528609411193"><ele>179.0</ele><time>2026-04-03T11:02:30Z</time></trkpt><trkpt lat="44.1133540219702" lon="4.1455377860674645"><ele>179.0</ele><time>2026-04-03T11:02:31Z</time></trkpt><trkpt lat="44.11324498032252" lon="4.145545865262689"><ele>179.0</ele><time>2026-04-03T11:02:31.999Z</time></trkpt><trkpt lat="44.113142700801454" lon="4.145556109395957"><ele>179.0</ele><time>2026-04-03T11:02:32.999Z</time></trkpt><trkpt lat="44.11305646403675" lon="4.145569644161503"><ele>179.0</ele><time>2026-04-03T11:02:33.999Z</time></trkpt><trkpt lat="44.11297518585444" lon="4.145582342898318"><ele>179.0</ele><time>2026-04-03T11:02:34.999Z</time></trkpt><trkpt lat="44.11287581672092" lon="4.145600355827315"><ele>178.6</ele><time>2026-04-03T11:02:35.999Z</time></trkpt><trkpt lat="44.11277005243826" lon="4.145622128845334"><ele>178.2</ele><time>2026-04-03T11:02:36.999Z</time></trkpt><trkpt lat="44.11266225775778" lon="4.1456479288980725"><ele>177.79999999999998</ele><time>2026-04-03T11:02:37.999Z</time></trkpt><trkpt lat="44.11256577702909" lon="4.145671020986871"><ele>177.39999999999998</ele><time>2026-04-03T11:02:38.999Z</time></trkpt><trkpt lat="44.1124687724226" lon="4.145692855478199"><ele>177.0</ele><time>2026-04-03T11:02:39.999Z</time></trkpt><trkpt lat="44.11235977133434" lon="4.145709954610648"><ele>176.0</ele><time>2026-04-03T11:02:40.999Z</time></trkpt><trkpt lat="44.11223521620673" lon="4.145724300562319"><ele>175.0</ele><time>2026-04-03T11:02:42Z</time></trkpt><trkpt lat="44.11210647102779" lon="4.145742858826052"><ele>174.0</ele><time>2026-04-03T11:02:43Z</time></trkpt><trkpt lat="44.11197524472332" lon="4.145770451971486"><ele>173.0</ele><time>2026-04-03T11:02:44Z</time></trkpt><trkpt lat="44.111835550521526" lon="4.145817865368911"><ele>173.0</ele><time>2026-04-03T11:02:45Z</time></trkpt><trkpt lat="44.11170076367099" lon="4.145836078746191"><ele>173.0</ele><time>2026-04-03T11:02:46Z</time></trkpt><trkpt lat="44.1115516547677" lon="4.145845532603577"><ele>173.0</ele><time>2026-04-03T11:02:47Z</time></trkpt><trkpt lat="44.11141107653108" lon="4.1458510017872605"><ele>173.0</ele><time>2026-04-03T11:02:48Z</time></trkpt><trkpt lat="44.1112669635294" lon="4.1458565806819045"><ele>171.0</ele><time>2026-04-03T11:02:49Z</time></trkpt><trkpt lat="44.111121146195075" lon="4.14586367997039"><ele>169.0</ele><time>2026-04-03T11:02:50Z</time></trkpt><trkpt lat="44.110971990105064" lon="4.145884383421774"><ele>167.0</ele><time>2026-04-03T11:02:51Z</time></trkpt><trkpt lat="44.110818706392116" lon="4.145938204521951"><ele>164.33333333333331</ele><time>2026-04-03T11:02:52Z</time></trkpt><trkpt lat="44.110640946627655" lon="4.1460396346479"><ele>161.66666666666666</ele><time>2026-04-03T11:02:53Z</time></trkpt><trkpt lat="44.11045582560064" lon="4.146169832292706"><ele>159.0</ele><time>2026-04-03T11:02:54Z</time></trkpt><trkpt lat="44.11025847185457" lon="4.14631900738649"><ele>159.0</ele><time>2026-04-03T11:02:55Z</time></trkpt><trkpt lat="44.11007580666308" lon="4.146418637192345"><ele>159.0</ele><time>2026-04-03T11:02:56Z</time></trkpt><trkpt lat="44.10985396701018" lon="4.146519701872653"><ele>159.0</ele><time>2026-04-03T11:02:57Z</time></trkpt><trkpt lat="44.10964487824598" lon="4.14666720207849"><ele>155.5</ele><time>2026-04-03T11:02:58Z</time></trkpt><trkpt lat="44.10942870735007" lon="4.14681360640075"><ele>152.0</ele><time>2026-04-03T11:02:59Z</time></trkpt><trkpt lat="44.10921807347926" lon="4.1469408886279995"><ele>151.0</ele><time>2026-04-03T11:03:00Z</time></trkpt><trkpt lat="44.10898349850021" lon="4.147016993695927"><ele>150.0</ele><time>2026-04-03T11:03:01Z</time></trkpt><trkpt lat="44.10876791142757" lon="4.147083996119389"><ele>150.0</ele><time>2026-04-03T11:03:02Z</time></trkpt><trkpt lat="44.108567962403" lon="4.147199993341237"><ele>150.0</ele><time>2026-04-03T11:03:03Z</time></trkpt><trkpt lat="44.10837947015631" lon="4.1473341719583505"><ele>150.0</ele><time>2026-04-03T11:03:04Z</time></trkpt><trkpt lat="44.10820999346692" lon="4.147493959740572"><ele>149.33333333333334</ele><time>2026-04-03T11:03:05Z</time></trkpt><trkpt lat="44.10803425881648" lon="4.147646092789236"><ele>148.66666666666669</ele><time>2026-04-03T11:03:06Z</time></trkpt><trkpt lat="44.1078699512419" lon="4.147786858145187"><ele>148.0</ele><time>2026-04-03T11:03:07Z</time></trkpt><trkpt lat="44.10771926384157" lon="4.147922607499082"><ele>148.0</ele><time>2026-04-03T11:03:08Z</time></trkpt><trkpt lat="44.107600182275725" lon="4.14804572427742"><ele>148.0</ele><time>2026-04-03T11:03:09Z</time></trkpt><trkpt lat="44.10748349198867" lon="4.1481590856183885"><ele>148.0</ele><time>2026-04-03T11:03:10Z</time></trkpt><trkpt lat="44.10737815188595" lon="4.148279510761511"><ele>148.0</ele><time>2026-04-03T11:03:11Z</time></trkpt><trkpt lat="44.10726455909667" lon="4.148403243342108"><ele>146.66666666666669</ele><time>2026-04-03T11:03:12Z</time></trkpt><trkpt lat="44.1071371836829" lon="4.148543546044851"><ele>145.33333333333334</ele><time>2026-04-03T11:03:13Z</time></trkpt><trkpt lat="44.10700688104782" lon="4.148659457074231"><ele>144.0</ele><time>2026-04-03T11:03:14Z</time></trkpt><trkpt lat="44.106906238841624" lon="4.148803842183017"><ele>144.0</ele><time>2026-04-03T11:03:15Z</time></trkpt><trkpt lat="44.106795006107134" lon="4.148931978431694"><ele>144.0</ele><time>2026-04-03T11:03:16Z</time></trkpt><trkpt lat="44.10667826119239" lon="4.149058469870328"><ele>144.0</ele><time>2026-04-03T11:03:17Z</time></trkpt><trkpt lat="44.10656256079424" lon="4.14918781287526"><ele>144.0</ele><time>2026-04-03T11:03:18Z</time></trkpt><trkpt lat="44.10644560248981" lon="4.149317988863117"><ele>142.0</ele><time>2026-04-03T11:03:19Z</time></trkpt><trkpt lat="44.106318837218105" lon="4.149444353966393"><ele>140.0</ele><time>2026-04-03T11:03:20Z</time></trkpt><trkpt lat="44.106183380036015" lon="4.149561194203265"><ele>138.0</ele><time>2026-04-03T11:03:21Z</time></trkpt><trkpt lat="44.106048337806214" lon="4.1496845923030605"><ele>138.0</ele><time>2026-04-03T11:03:22Z</time></trkpt><trkpt lat="44.105924575072784" lon="4.149817899828749"><ele>138.0</ele><time>2026-04-03T11:03:23Z</time></trkpt><trkpt lat="44.105803993803576" lon="4.149949521000113"><ele>138.0</ele><time>2026-04-03T11:03:24Z</time></trkpt><trkpt lat="44.10569404749343" lon="4.150075536419724"><ele>137.75</ele><time>2026-04-03T11:03:25Z</time></trkpt><trkpt lat="44.10559019865423" lon="4.150200129675706"><ele>137.5</ele><time>2026-04-03T11:03:26Z</time></trkpt><trkpt lat="44.105493587736994" lon="4.150327462024045"><ele>137.25</ele><time>2026-04-03T11:03:27Z</time></trkpt><trkpt lat="44.10540419650493" lon="4.15046373159114"><ele>137.0</ele><time>2026-04-03T11:03:28Z</time></trkpt><trkpt lat="44.105321080036575" lon="4.1506242106411495"><ele>136.75</ele><time>2026-04-03T11:03:29Z</time></trkpt><trkpt lat="44.105237072883014" lon="4.150791349094805"><ele>136.5</ele><time>2026-04-03T11:03:30Z</time></trkpt><trkpt lat="44.105153602913184" lon="4.150960709678094"><ele>136.25</ele><time>2026-04-03T11:03:31Z</time></trkpt><trkpt lat="44.105070871424005" lon="4.151126437243729"><ele>136.0</ele><time>2026-04-03T11:03:32Z</time></trkpt><trkpt lat="44.10499263272089" lon="4.151289841498863"><ele>136.0</ele><time>2026-04-03T11:03:33Z</time></trkpt><trkpt lat="44.10491516493248" lon="4.15144582371145"><ele>136.0</ele><time>2026-04-03T11:03:34Z</time></trkpt><trkpt lat="44.10484241435727" lon="4.151593326993431"><ele>136.0</ele><time>2026-04-03T11:03:35Z</time></trkpt><trkpt lat="44.1047744561448" lon="4.151740222853863"><ele>136.0</ele><time>2026-04-03T11:03:36Z</time></trkpt><trkpt lat="44.104703950886375" lon="4.15189602930296"><ele>136.0</ele><time>2026-04-03T11:03:37Z</time></trkpt><trkpt lat="44.1046198656883" lon="4.15204835957979"><ele>136.0</ele><time>2026-04-03T11:03:38Z</time></trkpt><trkpt lat="44.1045084327979" lon="4.152167616001366"><ele>136.0</ele><time>2026-04-03T11:03:39Z</time></trkpt><trkpt lat="44.10438514768116" lon="4.152269650448905"><ele>136.0</ele><time>2026-04-03T11:03:40Z</time></trkpt><trkpt lat="44.10425012188211" lon="4.152345959274609"><ele>136.0</ele><time>2026-04-03T11:03:41Z</time></trkpt><trkpt lat="44.104103244999216" lon="4.152432907593991"><ele>136.0</ele><time>2026-04-03T11:03:42Z</time></trkpt><trkpt lat="44.10394673305693" lon="4.1524829959985"><ele>136.0</ele><time>2026-04-03T11:03:43Z</time></trkpt><trkpt lat="44.103789682344896" lon="4.152505938150047"><ele>136.0</ele><time>2026-04-03T11:03:44Z</time></trkpt><trkpt lat="44.1036393265022" lon="4.152549893942772"><ele>136.0</ele><time>2026-04-03T11:03:45Z</time></trkpt><trkpt lat="44.103504489041256" lon="4.15261610228358"><ele>136.0</ele><time>2026-04-03T11:03:46Z</time></trkpt><trkpt lat="44.10336883789517" lon="4.152691840969265"><ele>136.0</ele><time>2026-04-03T11:03:47Z</time></trkpt><trkpt lat="44.10323072644035" lon="4.152750384797941"><ele>136.5</ele><time>2026-04-03T11:03:48Z</time></trkpt><trkpt lat="44.103105184280324" lon="4.152838610730525"><ele>137.0</ele><time>2026-04-03T11:03:49Z</time></trkpt><trkpt lat="44.102976329818624" lon="4.152908453728639"><ele>137.5</ele><time>2026-04-03T11:03:50Z</time></trkpt><trkpt lat="44.102840675855084" lon="4.152969308038177"><ele>138.0</ele><time>2026-04-03T11:03:51Z</time></trkpt><trkpt lat="44.10271994164438" lon="4.153052598130429"><ele>138.0</ele><time>2026-04-03T11:03:52Z</time></trkpt><trkpt lat="44.10258570205836" lon="4.153119531225132"><ele>138.0</ele><time>2026-04-03T11:03:53Z</time></trkpt><trkpt lat="44.10244685460399" lon="4.1531797548730855"><ele>138.0</ele><time>2026-04-03T11:03:54Z</time></trkpt><trkpt lat="44.10232557151013" lon="4.15323969685571"><ele>138.0</ele><time>2026-04-03T11:03:55Z</time></trkpt><trkpt lat="44.10222465617945" lon="4.153330494576421"><ele>138.75</ele><time>2026-04-03T11:03:56Z</time></trkpt><trkpt lat="44.10215202599554" lon="4.153474911667428"><ele>139.5</ele><time>2026-04-03T11:03:57Z</time></trkpt><trkpt lat="44.10209124309152" lon="4.153654008473289"><ele>140.25</ele><time>2026-04-03T11:03:58Z</time></trkpt><trkpt lat="44.102032616560635" lon="4.153842717952096"><ele>141.0</ele><time>2026-04-03T11:03:59Z</time></trkpt><trkpt lat="44.10197975135556" lon="4.153963689372253"><ele>141.0</ele><time>2026-04-03T11:04:00Z</time></trkpt><trkpt lat="44.1019396937104" lon="4.1540340098708874"><ele>141.0</ele><time>2026-04-03T11:04:01Z</time></trkpt><trkpt lat="44.101880142435114" lon="4.154116917737223"><ele>141.0</ele><time>2026-04-03T11:04:08Z</time></trkpt><trkpt lat="44.10170777464972" lon="4.154070431244454"><ele>141.0</ele><time>2026-04-03T11:04:09Z</time></trkpt><trkpt lat="44.10158487441982" lon="4.15406881411404"><ele>141.0</ele><time>2026-04-03T11:04:10Z</time></trkpt><trkpt lat="44.10147423191045" lon="4.154075491051759"><ele>143.0</ele><time>2026-04-03T11:04:11Z</time></trkpt><trkpt lat="44.101369889633496" lon="4.154084377313643"><ele>145.0</ele><time>2026-04-03T11:04:12Z</time></trkpt><trkpt lat="44.101250182818326" lon="4.154083968539841"><ele>147.0</ele><time>2026-04-03T11:04:13Z</time></trkpt><trkpt lat="44.10111359400648" lon="4.154079579588927"><ele>149.0</ele><time>2026-04-03T11:04:14Z</time></trkpt><trkpt lat="44.10097193593085" lon="4.154060247445997"><ele>149.0</ele><time>2026-04-03T11:04:15Z</time></trkpt><trkpt lat="44.100840541936726" lon="4.154036761062274"><ele>149.0</ele><time>2026-04-03T11:04:16Z</time></trkpt><trkpt lat="44.10071546525877" lon="4.154009927210859"><ele>149.0</ele><time>2026-04-03T11:04:17Z</time></trkpt><trkpt lat="44.10059438238661" lon="4.153986520740806"><ele>149.0</ele><time>2026-04-03T11:04:18Z</time></trkpt><trkpt lat="44.10047928249878" lon="4.15396364806267"><ele>149.0</ele><time>2026-04-03T11:04:19Z</time></trkpt><trkpt lat="44.10037569071356" lon="4.153947324744133"><ele>149.0</ele><time>2026-04-03T11:04:20Z</time></trkpt><trkpt lat="44.1002856164219" lon="4.153936053395169"><ele>149.0</ele><time>2026-04-03T11:04:21Z</time></trkpt><trkpt lat="44.100202681650224" lon="4.1539176257277735"><ele>149.0</ele><time>2026-04-03T11:04:22Z</time></trkpt><trkpt lat="44.10013334353897" lon="4.153895448343002"><ele>149.0</ele><time>2026-04-03T11:04:23Z</time></trkpt><trkpt lat="44.100059061271985" lon="4.153864284055713"><ele>149.0</ele><time>2026-04-03T11:04:24Z</time></trkpt><trkpt lat="44.099988572240136" lon="4.153758585958642"><ele>149.0</ele><time>2026-04-03T11:04:25Z</time></trkpt><trkpt lat="44.09994246822865" lon="4.1536359541478385"><ele>149.0</ele><time>2026-04-03T11:04:26Z</time></trkpt><trkpt lat="44.09988955645582" lon="4.153517251874573"><ele>149.0</ele><time>2026-04-03T11:04:27Z</time></trkpt><trkpt lat="44.09983721006877" lon="4.153398110510126"><ele>149.0</ele><time>2026-04-03T11:04:28Z</time></trkpt><trkpt lat="44.09978197250315" lon="4.153264972760618"><ele>149.0</ele><time>2026-04-03T11:04:29Z</time></trkpt><trkpt lat="44.099720119003024" lon="4.153127235565509"><ele>149.0</ele><time>2026-04-03T11:04:30Z</time></trkpt><trkpt lat="44.09966200245489" lon="4.152996050054431"><ele>149.0</ele><time>2026-04-03T11:04:31Z</time></trkpt><trkpt lat="44.09959377824639" lon="4.15287412835579"><ele>149.0</ele><time>2026-04-03T11:04:32Z</time></trkpt><trkpt lat="44.09950728187488" lon="4.152755170056105"><ele>149.0</ele><time>2026-04-03T11:04:33Z</time></trkpt><trkpt lat="44.099392050668314" lon="4.1526612602809845"><ele>149.0</ele><time>2026-04-03T11:04:34Z</time></trkpt><trkpt lat="44.09926261961223" lon="4.152589826700051"><ele>149.0</ele><time>2026-04-03T11:04:35Z</time></trkpt><trkpt lat="44.09914241342184" lon="4.152526848075513"><ele>149.0</ele><time>2026-04-03T11:04:36Z</time></trkpt><trkpt lat="44.09901662326708" lon="4.152462350532153"><ele>149.0</ele><time>2026-04-03T11:04:37Z</time></trkpt><trkpt lat="44.098883393124275" lon="4.1523890235397465"><ele>148.0</ele><time>2026-04-03T11:04:38Z</time></trkpt><trkpt lat="44.098730784342976" lon="4.152317906325655"><ele>147.0</ele><time>2026-04-03T11:04:39Z</time></trkpt><trkpt lat="44.09858865520019" lon="4.152223563310868"><ele>146.0</ele><time>2026-04-03T11:04:40Z</time></trkpt><trkpt lat="44.09843379259923" lon="4.152143664614072"><ele>146.0</ele><time>2026-04-03T11:04:41Z</time></trkpt><trkpt lat="44.098273014242274" lon="4.15205920641454"><ele>146.0</ele><time>2026-04-03T11:04:42Z</time></trkpt><trkpt lat="44.098113147798706" lon="4.151978404648928"><ele>146.0</ele><time>2026-04-03T11:04:43Z</time></trkpt><trkpt lat="44.09795279285239" lon="4.151899801447176"><ele>145.0</ele><time>2026-04-03T11:04:44Z</time></trkpt><trkpt lat="44.09779573894191" lon="4.151822678788235"><ele>144.0</ele><time>2026-04-03T11:04:45Z</time></trkpt><trkpt lat="44.097638911406456" lon="4.15173430546862"><ele>143.0</ele><time>2026-04-03T11:04:46Z</time></trkpt><trkpt lat="44.09749171845245" lon="4.151631346453836"><ele>142.75</ele><time>2026-04-03T11:04:47Z</time></trkpt><trkpt lat="44.09735513577551" lon="4.151520427174934"><ele>142.5</ele><time>2026-04-03T11:04:48Z</time></trkpt><trkpt lat="44.09723357452248" lon="4.151401313323146"><ele>142.25</ele><time>2026-04-03T11:04:49Z</time></trkpt><trkpt lat="44.097133189624735" lon="4.151261567639083"><ele>142.0</ele><time>2026-04-03T11:04:50Z</time></trkpt><trkpt lat="44.09706345473553" lon="4.151099396880635"><ele>142.0</ele><time>2026-04-03T11:04:51Z</time></trkpt><trkpt lat="44.097023017762446" lon="4.150929717770201"><ele>142.0</ele><time>2026-04-03T11:04:52Z</time></trkpt><trkpt lat="44.097001211002755" lon="4.150778099629581"><ele>142.0</ele><time>2026-04-03T11:04:53Z</time></trkpt><trkpt lat="44.09690394150497" lon="4.150674984257287"><ele>142.0</ele><time>2026-04-03T11:04:54Z</time></trkpt><trkpt lat="44.09678836543785" lon="4.150636323879021"><ele>142.0</ele><time>2026-04-03T11:04:55Z</time></trkpt><trkpt lat="44.09667673875096" lon="4.150683890833936"><ele>142.0</ele><time>2026-04-03T11:04:56Z</time></trkpt><trkpt lat="44.09659075864555" lon="4.15079804556086"><ele>142.0</ele><time>2026-04-03T11:04:57Z</time></trkpt><trkpt lat="44.09655304886819" lon="4.150959011770305"><ele>142.0</ele><time>2026-04-03T11:04:58Z</time></trkpt><trkpt lat="44.09655294917804" lon="4.151135558624486"><ele>142.0</ele><time>2026-04-03T11:04:59Z</time></trkpt><trkpt lat="44.096637734233525" lon="4.151288484122469"><ele>142.0</ele><time>2026-04-03T11:05:00Z</time></trkpt><trkpt lat="44.09669640747413" lon="4.1514347287666515"><ele>142.0</ele><time>2026-04-03T11:05:01Z</time></trkpt><trkpt lat="44.09674567803268" lon="4.151614620698282"><ele>142.0</ele><time>2026-04-03T11:05:02Z</time></trkpt><trkpt lat="44.09674227956023" lon="4.151814530761291"><ele>142.33333333333334</ele><time>2026-04-03T11:05:03Z</time></trkpt><trkpt lat="44.09667498368146" lon="4.152047837450617"><ele>142.66666666666666</ele><time>2026-04-03T11:05:04Z</time></trkpt><trkpt lat="44.09664193399975" lon="4.152280833968215"><ele>143.0</ele><time>2026-04-03T11:05:05Z</time></trkpt><trkpt lat="44.09661729276747" lon="4.152520068684234"><ele>141.33333333333331</ele><time>2026-04-03T11:05:06Z</time></trkpt><trkpt lat="44.09657724947159" lon="4.152756223491563"><ele>139.66666666666666</ele><time>2026-04-03T11:05:07Z</time></trkpt><trkpt lat="44.096535741120555" lon="4.152985708077533"><ele>138.0</ele><time>2026-04-03T11:05:08Z</time></trkpt><trkpt lat="44.09649777843519" lon="4.153219324480623"><ele>137.0</ele><time>2026-04-03T11:05:09Z</time></trkpt><trkpt lat="44.09646611589209" lon="4.15346324536693"><ele>136.0</ele><time>2026-04-03T11:05:10Z</time></trkpt><trkpt lat="44.09643471089207" lon="4.153711797784197"><ele>135.0</ele><time>2026-04-03T11:05:11Z</time></trkpt><trkpt lat="44.09640404228675" lon="4.153953468773495"><ele>135.0</ele><time>2026-04-03T11:05:12Z</time></trkpt><trkpt lat="44.09637555949915" lon="4.154187315919362"><ele>135.0</ele><time>2026-04-03T11:05:13Z</time></trkpt><trkpt lat="44.096347160312995" lon="4.154412744862561"><ele>135.0</ele><time>2026-04-03T11:05:14Z</time></trkpt><trkpt lat="44.096333181600635" lon="4.154644544986919"><ele>134.66666666666666</ele><time>2026-04-03T11:05:15Z</time></trkpt><trkpt lat="44.0963304677672" lon="4.154881974260629"><ele>134.33333333333331</ele><time>2026-04-03T11:05:16Z</time></trkpt><trkpt lat="44.09633674649412" lon="4.155120016655651"><ele>134.0</ele><time>2026-04-03T11:05:17Z</time></trkpt><trkpt lat="44.096361846288715" lon="4.155360288738344"><ele>134.0</ele><time>2026-04-03T11:05:18Z</time></trkpt><trkpt lat="44.096387109655055" lon="4.155598596822732"><ele>134.0</ele><time>2026-04-03T11:05:19Z</time></trkpt><trkpt lat="44.09641011388033" lon="4.155830905748498"><ele>134.0</ele><time>2026-04-03T11:05:20Z</time></trkpt><trkpt lat="44.096428723932874" lon="4.156055486600182"><ele>133.33333333333331</ele><time>2026-04-03T11:05:21Z</time></trkpt><trkpt lat="44.0964434616103" lon="4.15627956480699"><ele>132.66666666666666</ele><time>2026-04-03T11:05:22Z</time></trkpt><trkpt lat="44.096455231136545" lon="4.156503963022885"><ele>132.0</ele><time>2026-04-03T11:05:23Z</time></trkpt><trkpt lat="44.09646943843409" lon="4.156731047542949"><ele>131.66666666666666</ele><time>2026-04-03T11:05:24Z</time></trkpt><trkpt lat="44.096458381730415" lon="4.156960618567437"><ele>131.33333333333331</ele><time>2026-04-03T11:05:25Z</time></trkpt><trkpt lat="44.09642931485332" lon="4.1571904215706"><ele>131.0</ele><time>2026-04-03T11:05:26Z</time></trkpt><trkpt lat="44.09638476982773" lon="4.157414061952767"><ele>131.0</ele><time>2026-04-03T11:05:27Z</time></trkpt><trkpt lat="44.09631322743882" lon="4.157613518948724"><ele>131.0</ele><time>2026-04-03T11:05:28Z</time></trkpt><trkpt lat="44.09623804349007" lon="4.157801235886931"><ele>131.0</ele><time>2026-04-03T11:05:29Z</time></trkpt><trkpt lat="44.09614500310532" lon="4.1579815493191985"><ele>131.0</ele><time>2026-04-03T11:05:30Z</time></trkpt><trkpt lat="44.09604515517721" lon="4.158154250326513"><ele>131.0</ele><time>2026-04-03T11:05:31Z</time></trkpt><trkpt lat="44.095933175383855" lon="4.158334024740968"><ele>131.0</ele><time>2026-04-03T11:05:32Z</time></trkpt><trkpt lat="44.09581118404352" lon="4.1585076530607585"><ele>131.0</ele><time>2026-04-03T11:05:33Z</time></trkpt><trkpt lat="44.09569841196658" lon="4.158682550704358"><ele>131.0</ele><time>2026-04-03T11:05:34Z</time></trkpt><trkpt lat="44.09558678215302" lon="4.158868528973055"><ele>131.0</ele><time>2026-04-03T11:05:35Z</time></trkpt><trkpt lat="44.09547225482067" lon="4.159043479886767"><ele>132.0</ele><time>2026-04-03T11:05:36Z</time></trkpt><trkpt lat="44.095354716166476" lon="4.159222925547493"><ele>133.0</ele><time>2026-04-03T11:05:37Z</time></trkpt><trkpt lat="44.09523858799608" lon="4.159406402660253"><ele>134.0</ele><time>2026-04-03T11:05:38Z</time></trkpt><trkpt lat="44.09512307061831" lon="4.159595025318585"><ele>134.0</ele><time>2026-04-03T11:05:39Z</time></trkpt><trkpt lat="44.09500770107191" lon="4.159775455554881"><ele>134.0</ele><time>2026-04-03T11:05:40Z</time></trkpt><trkpt lat="44.09489259323561" lon="4.159953563815533"><ele>134.0</ele><time>2026-04-03T11:05:41Z</time></trkpt><trkpt lat="44.09477837879614" lon="4.160132779412122"><ele>133.0</ele><time>2026-04-03T11:05:42Z</time></trkpt><trkpt lat="44.09466423711228" lon="4.160311938423271"><ele>132.0</ele><time>2026-04-03T11:05:43Z</time></trkpt><trkpt lat="44.09455125913085" lon="4.160488714754815"><ele>131.0</ele><time>2026-04-03T11:05:44Z</time></trkpt><trkpt lat="44.09443844907263" lon="4.160666020797452"><ele>131.66666666666666</ele><time>2026-04-03T11:05:45Z</time></trkpt><trkpt lat="44.09432668049361" lon="4.160843106728243"><ele>132.33333333333334</ele><time>2026-04-03T11:05:46Z</time></trkpt><trkpt lat="44.0942140225067" lon="4.161026582109254"><ele>133.0</ele><time>2026-04-03T11:05:47Z</time></trkpt><trkpt lat="44.09409847284839" lon="4.161220147370369"><ele>132.66666666666669</ele><time>2026-04-03T11:05:48Z</time></trkpt><trkpt lat="44.093972393077564" lon="4.1614403525648855"><ele>132.33333333333334</ele><time>2026-04-03T11:05:49Z</time></trkpt><trkpt lat="44.093848614578214" lon="4.16167345449559"><ele>132.0</ele><time>2026-04-03T11:05:50Z</time></trkpt><trkpt lat="44.09372913857572" lon="4.16191252453376"><ele>132.0</ele><time>2026-04-03T11:05:51Z</time></trkpt><trkpt lat="44.0936185590035" lon="4.162170455579057"><ele>132.0</ele><time>2026-04-03T11:05:52Z</time></trkpt><trkpt lat="44.09351743759362" lon="4.1624499428398085"><ele>132.0</ele><time>2026-04-03T11:05:52.999Z</time></trkpt><trkpt lat="44.093422721070574" lon="4.162748820082419"><ele>133.5</ele><time>2026-04-03T11:05:53.999Z</time></trkpt><trkpt lat="44.09333634682861" lon="4.163065049702789"><ele>135.0</ele><time>2026-04-03T11:05:54.999Z</time></trkpt><trkpt lat="44.09326199124878" lon="4.163406087664013"><ele>135.0</ele><time>2026-04-03T11:05:55.999Z</time></trkpt><trkpt lat="44.09319905844231" lon="4.163763211997574"><ele>135.0</ele><time>2026-04-03T11:05:56.999Z</time></trkpt><trkpt lat="44.09314325722562" lon="4.164097079522429"><ele>138.5</ele><time>2026-04-03T11:05:57.999Z</time></trkpt><trkpt lat="44.09309495357778" lon="4.164408244908752"><ele>142.0</ele><time>2026-04-03T11:05:58.999Z</time></trkpt><trkpt lat="44.09304177775298" lon="4.164718795897312"><ele>145.0</ele><time>2026-04-03T11:05:59.999Z</time></trkpt><trkpt lat="44.092986921733626" lon="4.165021963112448"><ele>148.0</ele><time>2026-04-03T11:06:00.999Z</time></trkpt><trkpt lat="44.092939911763644" lon="4.1653255029708856"><ele>151.0</ele><time>2026-04-03T11:06:01.999Z</time></trkpt><trkpt lat="44.09289278719305" lon="4.165632417112612"><ele>152.66666666666669</ele><time>2026-04-03T11:06:02.999Z</time></trkpt><trkpt lat="44.092845273433404" lon="4.165931509403264"><ele>154.33333333333334</ele><time>2026-04-03T11:06:03.999Z</time></trkpt><trkpt lat="44.09279286105149" lon="4.166236264160577"><ele>156.0</ele><time>2026-04-03T11:06:04.999Z</time></trkpt><trkpt lat="44.09273916975655" lon="4.166543720626217"><ele>157.5</ele><time>2026-04-03T11:06:05.999Z</time></trkpt><trkpt lat="44.09268488354127" lon="4.166851615892404"><ele>159.0</ele><time>2026-04-03T11:06:06.999Z</time></trkpt><trkpt lat="44.09263344941032" lon="4.167163940932063"><ele>162.0</ele><time>2026-04-03T11:06:07.999Z</time></trkpt><trkpt lat="44.09258467545175" lon="4.16747823487716"><ele>165.0</ele><time>2026-04-03T11:06:08.999Z</time></trkpt><trkpt lat="44.09253792104917" lon="4.167791302175501"><ele>165.0</ele><time>2026-04-03T11:06:09.999Z</time></trkpt><trkpt lat="44.092494153014314" lon="4.16810660418678"><ele>165.0</ele><time>2026-04-03T11:06:10.999Z</time></trkpt><trkpt lat="44.09245324490168" lon="4.168430432290557"><ele>165.0</ele><time>2026-04-03T11:06:11.999Z</time></trkpt><trkpt lat="44.09241752622315" lon="4.168754221739336"><ele>165.0</ele><time>2026-04-03T11:06:12.999Z</time></trkpt><trkpt lat="44.09238356800524" lon="4.169076696913005"><ele>165.5</ele><time>2026-04-03T11:06:13.999Z</time></trkpt><trkpt lat="44.09235252407811" lon="4.169402092148"><ele>166.0</ele><time>2026-04-03T11:06:14.999Z</time></trkpt><trkpt lat="44.092322857237214" lon="4.1697268219861865"><ele>168.0</ele><time>2026-04-03T11:06:15.999Z</time></trkpt><trkpt lat="44.09229831679966" lon="4.170050314993766"><ele>170.0</ele><time>2026-04-03T11:06:16.999Z</time></trkpt><trkpt lat="44.092274545651556" lon="4.170374126685879"><ele>171.5</ele><time>2026-04-03T11:06:17.999Z</time></trkpt><trkpt lat="44.09225659495298" lon="4.170701697874535"><ele>173.0</ele><time>2026-04-03T11:06:18.999Z</time></trkpt><trkpt lat="44.09223801262081" lon="4.171026382164617"><ele>173.0</ele><time>2026-04-03T11:06:19.999Z</time></trkpt><trkpt lat="44.09222440657806" lon="4.171346634166279"><ele>173.0</ele><time>2026-04-03T11:06:20.999Z</time></trkpt><trkpt lat="44.09221286725793" lon="4.171670075256636"><ele>173.0</ele><time>2026-04-03T11:06:21.999Z</time></trkpt><trkpt lat="44.092205103506515" lon="4.171986761441518"><ele>173.0</ele><time>2026-04-03T11:06:22.999Z</time></trkpt><trkpt lat="44.092191785954185" lon="4.17231409284133"><ele>172.5</ele><time>2026-04-03T11:06:23.999Z</time></trkpt><trkpt lat="44.09218435990932" lon="4.172635346711824"><ele>172.0</ele><time>2026-04-03T11:06:24.999Z</time></trkpt><trkpt lat="44.09218419930623" lon="4.172959421934577"><ele>173.5</ele><time>2026-04-03T11:06:25.999Z</time></trkpt><trkpt lat="44.09218847430214" lon="4.1732835323701645"><ele>175.0</ele><time>2026-04-03T11:06:26.999Z</time></trkpt><trkpt lat="44.09219395074206" lon="4.173608232613759"><ele>175.0</ele><time>2026-04-03T11:06:27.999Z</time></trkpt><trkpt lat="44.09221249392564" lon="4.17392369070774"><ele>175.0</ele><time>2026-04-03T11:06:28.999Z</time></trkpt><trkpt lat="44.09223895118279" lon="4.174239974021543"><ele>178.5</ele><time>2026-04-03T11:06:29.999Z</time></trkpt><trkpt lat="44.09226878597627" lon="4.174554730839213"><ele>182.0</ele><time>2026-04-03T11:06:30.999Z</time></trkpt><trkpt lat="44.09230004329535" lon="4.174871752075975"><ele>185.0</ele><time>2026-04-03T11:06:31.999Z</time></trkpt><trkpt lat="44.09233983542673" lon="4.1751859534296765"><ele>188.0</ele><time>2026-04-03T11:06:32.999Z</time></trkpt><trkpt lat="44.09238771496712" lon="4.175498428782853"><ele>188.0</ele><time>2026-04-03T11:06:33.999Z</time></trkpt><trkpt lat="44.092436628633834" lon="4.175803655710621"><ele>188.0</ele><time>2026-04-03T11:06:34.999Z</time></trkpt><trkpt lat="44.09248061132724" lon="4.1761018538616"><ele>188.0</ele><time>2026-04-03T11:06:35.999Z</time></trkpt><trkpt lat="44.09251904457528" lon="4.176398992945796"><ele>186.33333333333331</ele><time>2026-04-03T11:06:36.999Z</time></trkpt><trkpt lat="44.09255543084134" lon="4.176692396511615"><ele>184.66666666666666</ele><time>2026-04-03T11:06:37.999Z</time></trkpt><trkpt lat="44.09259582877872" lon="4.176985749193258"><ele>183.0</ele><time>2026-04-03T11:06:38.999Z</time></trkpt><trkpt lat="44.09264082203326" lon="4.177277767286237"><ele>182.0</ele><time>2026-04-03T11:06:39.999Z</time></trkpt><trkpt lat="44.09268716463114" lon="4.177567014096977"><ele>181.0</ele><time>2026-04-03T11:06:40.999Z</time></trkpt><trkpt lat="44.09272733732658" lon="4.17785640584046"><ele>180.0</ele><time>2026-04-03T11:06:41.999Z</time></trkpt><trkpt lat="44.09276466298272" lon="4.1781436796889535"><ele>180.0</ele><time>2026-04-03T11:06:42.999Z</time></trkpt><trkpt lat="44.092806691413976" lon="4.178423808361143"><ele>180.0</ele><time>2026-04-03T11:06:43.999Z</time></trkpt><trkpt lat="44.09284608125683" lon="4.178702283054495"><ele>180.0</ele><time>2026-04-03T11:06:44.999Z</time></trkpt><trkpt lat="44.092884594788266" lon="4.178977894721303"><ele>181.0</ele><time>2026-04-03T11:06:45.999Z</time></trkpt><trkpt lat="44.09292105125513" lon="4.179255408442977"><ele>182.0</ele><time>2026-04-03T11:06:46.999Z</time></trkpt><trkpt lat="44.09295303887202" lon="4.179535572463415"><ele>183.0</ele><time>2026-04-03T11:06:47.999Z</time></trkpt><trkpt lat="44.092983794034055" lon="4.179816033757578"><ele>184.33333333333334</ele><time>2026-04-03T11:06:48.999Z</time></trkpt><trkpt lat="44.09301342806411" lon="4.180089548051228"><ele>185.66666666666669</ele><time>2026-04-03T11:06:49.999Z</time></trkpt><trkpt lat="44.093041251803655" lon="4.180355504497917"><ele>187.0</ele><time>2026-04-03T11:06:50.999Z</time></trkpt><trkpt lat="44.09307238819332" lon="4.180624525120234"><ele>189.33333333333334</ele><time>2026-04-03T11:06:51.999Z</time></trkpt><trkpt lat="44.093110197760204" lon="4.180875323160213"><ele>191.66666666666669</ele><time>2026-04-03T11:06:52.999Z</time></trkpt><trkpt lat="44.0931501984631" lon="4.181115248068656"><ele>194.0</ele><time>2026-04-03T11:06:54Z</time></trkpt><trkpt lat="44.09316859055667" lon="4.181375544724657"><ele>195.33333333333334</ele><time>2026-04-03T11:06:55Z</time></trkpt><trkpt lat="44.093154940228395" lon="4.181667131594988"><ele>196.66666666666669</ele><time>2026-04-03T11:06:56Z</time></trkpt><trkpt lat="44.0931081279232" lon="4.181946176986459"><ele>198.0</ele><time>2026-04-03T11:06:57Z</time></trkpt><trkpt lat="44.093032636768434" lon="4.182224399629038"><ele>195.66666666666666</ele><time>2026-04-03T11:06:58Z</time></trkpt><trkpt lat="44.09292935788865" lon="4.1824925349684285"><ele>193.33333333333331</ele><time>2026-04-03T11:06:59Z</time></trkpt><trkpt lat="44.09280213067733" lon="4.182752935659241"><ele>191.0</ele><time>2026-04-03T11:07:00Z</time></trkpt><trkpt lat="44.092664087603566" lon="4.183008714623317"><ele>186.0</ele><time>2026-04-03T11:07:01Z</time></trkpt><trkpt lat="44.09252903878503" lon="4.183278208883851"><ele>181.0</ele><time>2026-04-03T11:07:02Z</time></trkpt><trkpt lat="44.09239788465762" lon="4.18355757659975"><ele>179.0</ele><time>2026-04-03T11:07:03Z</time></trkpt><trkpt lat="44.092265344210645" lon="4.1838409836094925"><ele>177.0</ele><time>2026-04-03T11:07:04Z</time></trkpt><trkpt lat="44.092131474148744" lon="4.184132593950433"><ele>173.0</ele><time>2026-04-03T11:07:05Z</time></trkpt><trkpt lat="44.09200131834097" lon="4.18442821521384"><ele>169.0</ele><time>2026-04-03T11:07:06Z</time></trkpt><trkpt lat="44.09187306979219" lon="4.184730779619113"><ele>169.0</ele><time>2026-04-03T11:07:07Z</time></trkpt><trkpt lat="44.09175303376558" lon="4.185039656754641"><ele>169.0</ele><time>2026-04-03T11:07:08Z</time></trkpt><trkpt lat="44.09163799990128" lon="4.185352901725696"><ele>168.5</ele><time>2026-04-03T11:07:09Z</time></trkpt><trkpt lat="44.09152022783553" lon="4.185663227438066"><ele>168.0</ele><time>2026-04-03T11:07:10Z</time></trkpt><trkpt lat="44.091402705029076" lon="4.185966790616011"><ele>168.0</ele><time>2026-04-03T11:07:11Z</time></trkpt><trkpt lat="44.09128186385486" lon="4.186268044281291"><ele>168.0</ele><time>2026-04-03T11:07:12Z</time></trkpt><trkpt lat="44.091159972186084" lon="4.186586800520801"><ele>169.0</ele><time>2026-04-03T11:07:13Z</time></trkpt><trkpt lat="44.09103578481073" lon="4.186919950639199"><ele>170.0</ele><time>2026-04-03T11:07:14Z</time></trkpt><trkpt lat="44.09090607180187" lon="4.1872467889552745"><ele>172.0</ele><time>2026-04-03T11:07:15Z</time></trkpt><trkpt lat="44.09077176039514" lon="4.187572152256014"><ele>174.0</ele><time>2026-04-03T11:07:16Z</time></trkpt><trkpt lat="44.09063957408051" lon="4.1878851536470245"><ele>179.0</ele><time>2026-04-03T11:07:17Z</time></trkpt><trkpt lat="44.090503253783474" lon="4.188187757423972"><ele>184.0</ele><time>2026-04-03T11:07:18Z</time></trkpt><trkpt lat="44.09036299223098" lon="4.188473388005468"><ele>184.0</ele><time>2026-04-03T11:07:19Z</time></trkpt><trkpt lat="44.09021559517747" lon="4.188749119549397"><ele>184.0</ele><time>2026-04-03T11:07:20Z</time></trkpt><trkpt lat="44.09005728185202" lon="4.189011721719892"><ele>184.0</ele><time>2026-04-03T11:07:21Z</time></trkpt><trkpt lat="44.08989520870112" lon="4.189274085887499"><ele>184.0</ele><time>2026-04-03T11:07:22Z</time></trkpt><trkpt lat="44.08972016200515" lon="4.189556377380157"><ele>184.0</ele><time>2026-04-03T11:07:23Z</time></trkpt><trkpt lat="44.08956105783549" lon="4.18983138809764"><ele>184.0</ele><time>2026-04-03T11:07:24Z</time></trkpt><trkpt lat="44.08939430236242" lon="4.19011142208537"><ele>180.0</ele><time>2026-04-03T11:07:25Z</time></trkpt><trkpt lat="44.08923185432497" lon="4.190385797966881"><ele>176.0</ele><time>2026-04-03T11:07:26Z</time></trkpt><trkpt lat="44.08906497352434" lon="4.190662301246937"><ele>172.0</ele><time>2026-04-03T11:07:27Z</time></trkpt><trkpt lat="44.08889778586874" lon="4.190934871155028"><ele>168.0</ele><time>2026-04-03T11:07:28Z</time></trkpt><trkpt lat="44.08872816402765" lon="4.191209942927203"><ele>168.0</ele><time>2026-04-03T11:07:29Z</time></trkpt><trkpt lat="44.08856444974939" lon="4.1914887188130105"><ele>168.0</ele><time>2026-04-03T11:07:30Z</time></trkpt><trkpt lat="44.08840052328974" lon="4.191771041992588"><ele>167.0</ele><time>2026-04-03T11:07:31Z</time></trkpt><trkpt lat="44.08823808023089" lon="4.192046360032596"><ele>166.0</ele><time>2026-04-03T11:07:32Z</time></trkpt><trkpt lat="44.08807136017427" lon="4.192315973904747"><ele>165.5</ele><time>2026-04-03T11:07:33Z</time></trkpt><trkpt lat="44.087900525502654" lon="4.192590478137293"><ele>165.0</ele><time>2026-04-03T11:07:34Z</time></trkpt><trkpt lat="44.08773215012448" lon="4.192860765913587"><ele>165.0</ele><time>2026-04-03T11:07:35Z</time></trkpt><trkpt lat="44.08755934099513" lon="4.19312044178505"><ele>165.0</ele><time>2026-04-03T11:07:36Z</time></trkpt><trkpt lat="44.08738280095847" lon="4.19337065705426"><ele>171.0</ele><time>2026-04-03T11:07:37Z</time></trkpt><trkpt lat="44.08720237233824" lon="4.193613731791246"><ele>177.0</ele><time>2026-04-03T11:07:38Z</time></trkpt><trkpt lat="44.08702498406091" lon="4.193856433962752"><ele>173.0</ele><time>2026-04-03T11:07:39Z</time></trkpt><trkpt lat="44.08684278526699" lon="4.194098677785375"><ele>169.0</ele><time>2026-04-03T11:07:40Z</time></trkpt><trkpt lat="44.086650143892" lon="4.194338425722092"><ele>170.0</ele><time>2026-04-03T11:07:41Z</time></trkpt><trkpt lat="44.086436504273955" lon="4.194576167338775"><ele>171.0</ele><time>2026-04-03T11:07:42Z</time></trkpt><trkpt lat="44.08623225960966" lon="4.194795347078098"><ele>166.5</ele><time>2026-04-03T11:07:43Z</time></trkpt><trkpt lat="44.08603131302943" lon="4.195005488907852"><ele>162.0</ele><time>2026-04-03T11:07:44Z</time></trkpt><trkpt lat="44.08582793754334" lon="4.195207715995953"><ele>162.0</ele><time>2026-04-03T11:07:45Z</time></trkpt><trkpt lat="44.08562513769467" lon="4.195395744388629"><ele>162.0</ele><time>2026-04-03T11:07:46Z</time></trkpt><trkpt lat="44.08541923523083" lon="4.195578185283784"><ele>159.5</ele><time>2026-04-03T11:07:47Z</time></trkpt><trkpt lat="44.085210685546684" lon="4.195753015653347"><ele>157.0</ele><time>2026-04-03T11:07:48Z</time></trkpt><trkpt lat="44.0850010021266" lon="4.195925711076975"><ele>157.0</ele><time>2026-04-03T11:07:49Z</time></trkpt><trkpt lat="44.08478278836293" lon="4.196104301565648"><ele>157.0</ele><time>2026-04-03T11:07:50Z</time></trkpt><trkpt lat="44.084561281671206" lon="4.196275274237799"><ele>157.0</ele><time>2026-04-03T11:07:51Z</time></trkpt><trkpt lat="44.08433840589873" lon="4.1964327927327965"><ele>157.0</ele><time>2026-04-03T11:07:52Z</time></trkpt><trkpt lat="44.08411096886261" lon="4.19659544815407"><ele>154.5</ele><time>2026-04-03T11:07:53Z</time></trkpt><trkpt lat="44.0838770168035" lon="4.196767319997167"><ele>152.0</ele><time>2026-04-03T11:07:54Z</time></trkpt><trkpt lat="44.083647808926926" lon="4.196935611269685"><ele>152.0</ele><time>2026-04-03T11:07:55Z</time></trkpt><trkpt lat="44.08341283189203" lon="4.1971012675313535"><ele>152.0</ele><time>2026-04-03T11:07:56Z</time></trkpt><trkpt lat="44.08318592855231" lon="4.197259135178722"><ele>149.0</ele><time>2026-04-03T11:07:57Z</time></trkpt><trkpt lat="44.08295221735913" lon="4.197421441859466"><ele>146.0</ele><time>2026-04-03T11:07:58Z</time></trkpt><trkpt lat="44.08272405445535" lon="4.197588652475802"><ele>146.0</ele><time>2026-04-03T11:07:59Z</time></trkpt><trkpt lat="44.08249205687077" lon="4.1977586019495705"><ele>146.0</ele><time>2026-04-03T11:08:00Z</time></trkpt><trkpt lat="44.08226410942572" lon="4.197924901281657"><ele>146.5</ele><time>2026-04-03T11:08:01Z</time></trkpt><trkpt lat="44.08203440028847" lon="4.198088880362385"><ele>147.0</ele><time>2026-04-03T11:08:02Z</time></trkpt><trkpt lat="44.0818046669156" lon="4.198247084873176"><ele>146.5</ele><time>2026-04-03T11:08:03Z</time></trkpt><trkpt lat="44.081577792265456" lon="4.198408353102295"><ele>146.0</ele><time>2026-04-03T11:08:04Z</time></trkpt><trkpt lat="44.08134967848908" lon="4.1985763845483985"><ele>146.0</ele><time>2026-04-03T11:08:05Z</time></trkpt><trkpt lat="44.08113153068145" lon="4.198738721364508"><ele>146.0</ele><time>2026-04-03T11:08:06Z</time></trkpt><trkpt lat="44.08092604688809" lon="4.198896777600409"><ele>142.5</ele><time>2026-04-03T11:08:07Z</time></trkpt><trkpt lat="44.08072562090239" lon="4.199076133254675"><ele>139.0</ele><time>2026-04-03T11:08:08Z</time></trkpt><trkpt lat="44.08053705891294" lon="4.199321279614073"><ele>139.0</ele><time>2026-04-03T11:08:09Z</time></trkpt><trkpt lat="44.080363033445686" lon="4.199593534286736"><ele>139.0</ele><time>2026-04-03T11:08:10Z</time></trkpt><trkpt lat="44.080215667711755" lon="4.199886100581815"><ele>139.5</ele><time>2026-04-03T11:08:11Z</time></trkpt><trkpt lat="44.08008699759101" lon="4.2001882234455215"><ele>140.0</ele><time>2026-04-03T11:08:12Z</time></trkpt><trkpt lat="44.0799767806761" lon="4.200500630269322"><ele>142.0</ele><time>2026-04-03T11:08:13Z</time></trkpt><trkpt lat="44.079881613654024" lon="4.20082086715748"><ele>144.0</ele><time>2026-04-03T11:08:14Z</time></trkpt><trkpt lat="44.07980991847735" lon="4.201147171654807"><ele>144.0</ele><time>2026-04-03T11:08:15Z</time></trkpt><trkpt lat="44.0797418893642" lon="4.201470858318841"><ele>144.0</ele><time>2026-04-03T11:08:16Z</time></trkpt><trkpt lat="44.07967512366097" lon="4.201790393737807"><ele>143.5</ele><time>2026-04-03T11:08:17Z</time></trkpt><trkpt lat="44.079610872691504" lon="4.202114555680707"><ele>143.0</ele><time>2026-04-03T11:08:18Z</time></trkpt><trkpt lat="44.079543092297676" lon="4.2024391369196294"><ele>141.0</ele><time>2026-04-03T11:08:19Z</time></trkpt><trkpt lat="44.079473715874286" lon="4.202765904718055"><ele>139.0</ele><time>2026-04-03T11:08:20Z</time></trkpt><trkpt lat="44.07940477126345" lon="4.203088815523565"><ele>136.0</ele><time>2026-04-03T11:08:21Z</time></trkpt><trkpt lat="44.07933815983193" lon="4.203404034636628"><ele>133.0</ele><time>2026-04-03T11:08:22Z</time></trkpt><trkpt lat="44.07926916280792" lon="4.203722039661839"><ele>132.5</ele><time>2026-04-03T11:08:23Z</time></trkpt><trkpt lat="44.079193474003056" lon="4.204041632587239"><ele>132.0</ele><time>2026-04-03T11:08:24Z</time></trkpt><trkpt lat="44.07910299821877" lon="4.204357194814046"><ele>133.5</ele><time>2026-04-03T11:08:25Z</time></trkpt><trkpt lat="44.07899152723321" lon="4.204650467986665"><ele>135.0</ele><time>2026-04-03T11:08:26Z</time></trkpt><trkpt lat="44.078857164941304" lon="4.204920282131708"><ele>132.0</ele><time>2026-04-03T11:08:27Z</time></trkpt><trkpt lat="44.07869473086827" lon="4.205144086098821"><ele>129.0</ele><time>2026-04-03T11:08:28Z</time></trkpt><trkpt lat="44.07852688602896" lon="4.205355801267709"><ele>129.0</ele><time>2026-04-03T11:08:29Z</time></trkpt><trkpt lat="44.07833599048809" lon="4.205543799542792"><ele>129.0</ele><time>2026-04-03T11:08:30Z</time></trkpt><trkpt lat="44.0781484453106" lon="4.205709722471666"><ele>128.5</ele><time>2026-04-03T11:08:31Z</time></trkpt><trkpt lat="44.07795405677105" lon="4.205869472023549"><ele>128.0</ele><time>2026-04-03T11:08:32Z</time></trkpt><trkpt lat="44.07776671565357" lon="4.206044854711765"><ele>128.0</ele><time>2026-04-03T11:08:33Z</time></trkpt><trkpt lat="44.077590002161394" lon="4.206247617544061"><ele>128.0</ele><time>2026-04-03T11:08:34Z</time></trkpt><trkpt lat="44.07742685327613" lon="4.206478199183327"><ele>129.5</ele><time>2026-04-03T11:08:35Z</time></trkpt><trkpt lat="44.07727871149663" lon="4.206730845906244"><ele>131.0</ele><time>2026-04-03T11:08:36Z</time></trkpt><trkpt lat="44.07713046523606" lon="4.206980183544261"><ele>131.0</ele><time>2026-04-03T11:08:37Z</time></trkpt><trkpt lat="44.07701667475424" lon="4.207273746897488"><ele>131.0</ele><time>2026-04-03T11:08:38Z</time></trkpt><trkpt lat="44.07692805625665" lon="4.207588322966455"><ele>134.0</ele><time>2026-04-03T11:08:39Z</time></trkpt><trkpt lat="44.07686735677172" lon="4.207920768743954"><ele>137.0</ele><time>2026-04-03T11:08:40Z</time></trkpt><trkpt lat="44.07682824107365" lon="4.208262403100279"><ele>137.0</ele><time>2026-04-03T11:08:41Z</time></trkpt><trkpt lat="44.07678234528429" lon="4.208612746451269"><ele>137.0</ele><time>2026-04-03T11:08:42Z</time></trkpt><trkpt lat="44.0767070931313" lon="4.2089573038114025"><ele>134.5</ele><time>2026-04-03T11:08:43Z</time></trkpt><trkpt lat="44.076675881878316" lon="4.20930512477344"><ele>132.0</ele><time>2026-04-03T11:08:44Z</time></trkpt><trkpt lat="44.076635690493966" lon="4.20962952273523"><ele>131.0</ele><time>2026-04-03T11:08:45Z</time></trkpt><trkpt lat="44.07658632653246" lon="4.209940534959618"><ele>130.0</ele><time>2026-04-03T11:08:46Z</time></trkpt><trkpt lat="44.07653118353552" lon="4.210245182775752"><ele>130.0</ele><time>2026-04-03T11:08:47Z</time></trkpt><trkpt lat="44.0764765389313" lon="4.210548247075649"><ele>130.0</ele><time>2026-04-03T11:08:48Z</time></trkpt><trkpt lat="44.0764232455424" lon="4.210847354731944"><ele>130.0</ele><time>2026-04-03T11:08:49Z</time></trkpt><trkpt lat="44.07637275369065" lon="4.211140889525495"><ele>128.66666666666669</ele><time>2026-04-03T11:08:50Z</time></trkpt><trkpt lat="44.076327403122455" lon="4.211443361469687"><ele>127.33333333333334</ele><time>2026-04-03T11:08:51Z</time></trkpt><trkpt lat="44.07630191174709" lon="4.211748218905145"><ele>126.0</ele><time>2026-04-03T11:08:52Z</time></trkpt><trkpt lat="44.07629474286063" lon="4.212043808301172"><ele>125.33333333333334</ele><time>2026-04-03T11:08:53Z</time></trkpt><trkpt lat="44.07629157460104" lon="4.212353020685987"><ele>124.66666666666667</ele><time>2026-04-03T11:08:54Z</time></trkpt><trkpt lat="44.07629331344206" lon="4.212669111009622"><ele>124.0</ele><time>2026-04-03T11:08:55Z</time></trkpt><trkpt lat="44.07629906133093" lon="4.212981283208229"><ele>124.0</ele><time>2026-04-03T11:08:56Z</time></trkpt><trkpt lat="44.0763007307111" lon="4.213287963501331"><ele>124.0</ele><time>2026-04-03T11:08:57Z</time></trkpt><trkpt lat="44.07630522825811" lon="4.213620018906642"><ele>124.0</ele><time>2026-04-03T11:08:58Z</time></trkpt><trkpt lat="44.0763046356023" lon="4.2139328377001295"><ele>124.0</ele><time>2026-04-03T11:08:59Z</time></trkpt><trkpt lat="44.076295551035564" lon="4.214240964195393"><ele>124.0</ele><time>2026-04-03T11:09:00Z</time></trkpt><trkpt lat="44.07628341971233" lon="4.214561909076819"><ele>126.0</ele><time>2026-04-03T11:09:01Z</time></trkpt><trkpt lat="44.07626294418241" lon="4.21489420651123"><ele>128.0</ele><time>2026-04-03T11:09:02Z</time></trkpt><trkpt lat="44.076236180778764" lon="4.215260189331398"><ele>129.0</ele><time>2026-04-03T11:09:03Z</time></trkpt><trkpt lat="44.076197784411846" lon="4.215658257734419"><ele>130.0</ele><time>2026-04-03T11:09:04Z</time></trkpt><trkpt lat="44.076141834129686" lon="4.216000540589608"><ele>130.0</ele><time>2026-04-03T11:09:05Z</time></trkpt><trkpt lat="44.0761007699152" lon="4.216325213750065"><ele>130.0</ele><time>2026-04-03T11:09:06Z</time></trkpt><trkpt lat="44.07608229668288" lon="4.216632079039841"><ele>130.5</ele><time>2026-04-03T11:09:07Z</time></trkpt><trkpt lat="44.0760550396583" lon="4.216941789866656"><ele>131.0</ele><time>2026-04-03T11:09:08Z</time></trkpt><trkpt lat="44.076021461199936" lon="4.2172586357212785"><ele>131.5</ele><time>2026-04-03T11:09:09Z</time></trkpt><trkpt lat="44.07599054438061" lon="4.21756873229087"><ele>132.0</ele><time>2026-04-03T11:09:10Z</time></trkpt><trkpt lat="44.07596022422558" lon="4.2178816224102285"><ele>133.0</ele><time>2026-04-03T11:09:11Z</time></trkpt><trkpt lat="44.0759301350393" lon="4.2181903493179345"><ele>134.0</ele><time>2026-04-03T11:09:12Z</time></trkpt><trkpt lat="44.07590153498297" lon="4.21847508187278"><ele>135.0</ele><time>2026-04-03T11:09:13Z</time></trkpt><trkpt lat="44.07588067695113" lon="4.2187306939867915"><ele>135.0</ele><time>2026-04-03T11:09:14Z</time></trkpt><trkpt lat="44.07585720672126" lon="4.218955568323938"><ele>135.0</ele><time>2026-04-03T11:09:15Z</time></trkpt><trkpt lat="44.07581593255176" lon="4.219153563955746"><ele>135.0</ele><time>2026-04-03T11:09:16Z</time></trkpt><trkpt lat="44.07574844746958" lon="4.219320221879193"><ele>135.0</ele><time>2026-04-03T11:09:17Z</time></trkpt><trkpt lat="44.075645814180305" lon="4.21942180503185"><ele>135.33333333333334</ele><time>2026-04-03T11:09:18Z</time></trkpt><trkpt lat="44.07550849477451" lon="4.219478245277697"><ele>135.66666666666669</ele><time>2026-04-03T11:09:19Z</time></trkpt><trkpt lat="44.07535385374513" lon="4.219478987487371"><ele>136.0</ele><time>2026-04-03T11:09:20Z</time></trkpt><trkpt lat="44.075190665466856" lon="4.219439839194521"><ele>136.0</ele><time>2026-04-03T11:09:21Z</time></trkpt><trkpt lat="44.075005002190416" lon="4.21939721141702"><ele>136.0</ele><time>2026-04-03T11:09:22Z</time></trkpt><trkpt lat="44.07478968753621" lon="4.219402910707432"><ele>136.0</ele><time>2026-04-03T11:09:23Z</time></trkpt><trkpt lat="44.07455559750353" lon="4.219467917167345"><ele>136.0</ele><time>2026-04-03T11:09:24Z</time></trkpt><trkpt lat="44.074347314612474" lon="4.219571732510971"><ele>136.0</ele><time>2026-04-03T11:09:25Z</time></trkpt><trkpt lat="44.07414375105009" lon="4.219707866334205"><ele>136.0</ele><time>2026-04-03T11:09:26Z</time></trkpt><trkpt lat="44.073927507964136" lon="4.219882149912845"><ele>135.5</ele><time>2026-04-03T11:09:27Z</time></trkpt><trkpt lat="44.073695820692166" lon="4.220064136383868"><ele>135.0</ele><time>2026-04-03T11:09:28Z</time></trkpt><trkpt lat="44.07346142645601" lon="4.220233764288495"><ele>133.5</ele><time>2026-04-03T11:09:29Z</time></trkpt><trkpt lat="44.07323635622291" lon="4.220410493940213"><ele>132.0</ele><time>2026-04-03T11:09:30Z</time></trkpt><trkpt lat="44.07302095680536" lon="4.220593302189493"><ele>133.0</ele><time>2026-04-03T11:09:31Z</time></trkpt><trkpt lat="44.07280833248178" lon="4.2207914764872445"><ele>134.0</ele><time>2026-04-03T11:09:32Z</time></trkpt><trkpt lat="44.07260466364944" lon="4.220992949876645"><ele>132.5</ele><time>2026-04-03T11:09:33Z</time></trkpt><trkpt lat="44.072403009205516" lon="4.221208911517798"><ele>131.0</ele><time>2026-04-03T11:09:34Z</time></trkpt><trkpt lat="44.0722128055672" lon="4.221432786489533"><ele>131.0</ele><time>2026-04-03T11:09:35Z</time></trkpt><trkpt lat="44.07202753177134" lon="4.221653840705287"><ele>131.0</ele><time>2026-04-03T11:09:36Z</time></trkpt><trkpt lat="44.07185279291886" lon="4.2218587959330485"><ele>131.0</ele><time>2026-04-03T11:09:37Z</time></trkpt><trkpt lat="44.07168572867149" lon="4.222051941562393"><ele>131.0</ele><time>2026-04-03T11:09:38Z</time></trkpt><trkpt lat="44.07151931627869" lon="4.222240950390911"><ele>131.0</ele><time>2026-04-03T11:09:39Z</time></trkpt><trkpt lat="44.07134896383805" lon="4.222420295197983"><ele>130.66666666666666</ele><time>2026-04-03T11:09:40Z</time></trkpt><trkpt lat="44.07121218429231" lon="4.222568214684891"><ele>130.33333333333334</ele><time>2026-04-03T11:09:41Z</time></trkpt><trkpt lat="44.0710670052872" lon="4.222711797461282"><ele>130.0</ele><time>2026-04-03T11:09:42Z</time></trkpt><trkpt lat="44.07093880777019" lon="4.222854269968388"><ele>130.0</ele><time>2026-04-03T11:09:43Z</time></trkpt><trkpt lat="44.07082970803716" lon="4.222973555167989"><ele>130.0</ele><time>2026-04-03T11:09:44Z</time></trkpt><trkpt lat="44.07071833118884" lon="4.22306714884554"><ele>130.0</ele><time>2026-04-03T11:09:45Z</time></trkpt><trkpt lat="44.07060451414971" lon="4.22312786249275"><ele>130.0</ele><time>2026-04-03T11:09:46Z</time></trkpt><trkpt lat="44.07052119023878" lon="4.223228124980763"><ele>129.75</ele><time>2026-04-03T11:09:47Z</time></trkpt><trkpt lat="44.07049408248583" lon="4.223381441601626"><ele>129.5</ele><time>2026-04-03T11:09:48Z</time></trkpt><trkpt lat="44.07049871246461" lon="4.223561700528547"><ele>129.25</ele><time>2026-04-03T11:09:49Z</time></trkpt><trkpt lat="44.07048058360682" lon="4.223779520235717"><ele>129.0</ele><time>2026-04-03T11:09:50Z</time></trkpt><trkpt lat="44.07042010750578" lon="4.2240149944045235"><ele>129.0</ele><time>2026-04-03T11:09:51Z</time></trkpt><trkpt lat="44.07033756396371" lon="4.224250399763069"><ele>129.0</ele><time>2026-04-03T11:09:52Z</time></trkpt><trkpt lat="44.070263508897355" lon="4.224488778018247"><ele>129.0</ele><time>2026-04-03T11:09:53Z</time></trkpt><trkpt lat="44.07018315330575" lon="4.224709543117147"><ele>128.33333333333334</ele><time>2026-04-03T11:09:54Z</time></trkpt><trkpt lat="44.07006939747908" lon="4.224918085131566"><ele>127.66666666666667</ele><time>2026-04-03T11:09:55Z</time></trkpt><trkpt lat="44.06991843055043" lon="4.2250879912968395"><ele>127.0</ele><time>2026-04-03T11:09:56Z</time></trkpt><trkpt lat="44.069749459381086" lon="4.2252649201495585"><ele>126.5</ele><time>2026-04-03T11:09:57Z</time></trkpt><trkpt lat="44.069571209797815" lon="4.225450566721844"><ele>126.0</ele><time>2026-04-03T11:09:58Z</time></trkpt><trkpt lat="44.06939024250747" lon="4.225653067304305"><ele>123.5</ele><time>2026-04-03T11:09:59Z</time></trkpt><trkpt lat="44.06921347667108" lon="4.225860060412783"><ele>121.0</ele><time>2026-04-03T11:10:00Z</time></trkpt><trkpt lat="44.06903772531854" lon="4.226077787448421"><ele>120.5</ele><time>2026-04-03T11:10:01Z</time></trkpt><trkpt lat="44.06887180614895" lon="4.226306828954921"><ele>120.0</ele><time>2026-04-03T11:10:02Z</time></trkpt><trkpt lat="44.068710593337975" lon="4.226529316528087"><ele>119.66666666666666</ele><time>2026-04-03T11:10:03Z</time></trkpt><trkpt lat="44.06855476287799" lon="4.226749998974481"><ele>119.33333333333333</ele><time>2026-04-03T11:10:04Z</time></trkpt><trkpt lat="44.068407421511736" lon="4.226968853479176"><ele>119.0</ele><time>2026-04-03T11:10:05Z</time></trkpt><trkpt lat="44.068288302525495" lon="4.227199138823559"><ele>119.33333333333333</ele><time>2026-04-03T11:10:06Z</time></trkpt><trkpt lat="44.068198224451685" lon="4.227457625248413"><ele>119.66666666666666</ele><time>2026-04-03T11:10:07Z</time></trkpt><trkpt lat="44.06812109003082" lon="4.227725910377002"><ele>120.0</ele><time>2026-04-03T11:10:08Z</time></trkpt><trkpt lat="44.06804428411461" lon="4.227990772874505"><ele>119.66666666666666</ele><time>2026-04-03T11:10:09Z</time></trkpt><trkpt lat="44.06796122473313" lon="4.228247945085276"><ele>119.33333333333333</ele><time>2026-04-03T11:10:10Z</time></trkpt><trkpt lat="44.06787886296894" lon="4.2285003568091"><ele>119.0</ele><time>2026-04-03T11:10:11Z</time></trkpt><trkpt lat="44.06779803079086" lon="4.228761462407013"><ele>120.0</ele><time>2026-04-03T11:10:12Z</time></trkpt><trkpt lat="44.06772246173733" lon="4.229021676946628"><ele>121.0</ele><time>2026-04-03T11:10:13Z</time></trkpt><trkpt lat="44.067651640304085" lon="4.229280133131238"><ele>122.0</ele><time>2026-04-03T11:10:14Z</time></trkpt><trkpt lat="44.067587907714646" lon="4.229533603167368"><ele>122.0</ele><time>2026-04-03T11:10:15Z</time></trkpt><trkpt lat="44.06753952650921" lon="4.22979837505026"><ele>122.0</ele><time>2026-04-03T11:10:16Z</time></trkpt><trkpt lat="44.06750079455884" lon="4.230087632534155"><ele>122.0</ele><time>2026-04-03T11:10:17Z</time></trkpt><trkpt lat="44.06746283671215" lon="4.230376862210601"><ele>122.0</ele><time>2026-04-03T11:10:18Z</time></trkpt><trkpt lat="44.067423503069506" lon="4.230664931314577"><ele>122.0</ele><time>2026-04-03T11:10:19Z</time></trkpt><trkpt lat="44.06738431252739" lon="4.23094863065903"><ele>122.0</ele><time>2026-04-03T11:10:20Z</time></trkpt><trkpt lat="44.067345200571275" lon="4.23123372914787"><ele>122.0</ele><time>2026-04-03T11:10:21Z</time></trkpt><trkpt lat="44.0673074208046" lon="4.231518846383735"><ele>122.0</ele><time>2026-04-03T11:10:22Z</time></trkpt><trkpt lat="44.067271731801256" lon="4.231802649463267"><ele>122.0</ele><time>2026-04-03T11:10:23Z</time></trkpt><trkpt lat="44.06723564534303" lon="4.232091302898214"><ele>123.0</ele><time>2026-04-03T11:10:24Z</time></trkpt><trkpt lat="44.06719811103612" lon="4.232384345089901"><ele>124.0</ele><time>2026-04-03T11:10:25Z</time></trkpt><trkpt lat="44.067156479895665" lon="4.232679385349307"><ele>125.0</ele><time>2026-04-03T11:10:26Z</time></trkpt><trkpt lat="44.06711421042439" lon="4.232983788668511"><ele>124.5</ele><time>2026-04-03T11:10:27Z</time></trkpt><trkpt lat="44.067076201221624" lon="4.233291811911303"><ele>124.0</ele><time>2026-04-03T11:10:28Z</time></trkpt><trkpt lat="44.06703598437829" lon="4.233604450181199"><ele>124.0</ele><time>2026-04-03T11:10:29Z</time></trkpt><trkpt lat="44.06699084788363" lon="4.233916621885783"><ele>124.0</ele><time>2026-04-03T11:10:30Z</time></trkpt><trkpt lat="44.066946622204156" lon="4.234226440520199"><ele>125.0</ele><time>2026-04-03T11:10:31Z</time></trkpt><trkpt lat="44.06690405084871" lon="4.234534422089789"><ele>126.0</ele><time>2026-04-03T11:10:32Z</time></trkpt><trkpt lat="44.06685933337561" lon="4.234847781344041"><ele>127.0</ele><time>2026-04-03T11:10:33Z</time></trkpt><trkpt lat="44.06681247092243" lon="4.235183867189201"><ele>128.0</ele><time>2026-04-03T11:10:34Z</time></trkpt><trkpt lat="44.066763114145246" lon="4.235520964099262"><ele>129.5</ele><time>2026-04-03T11:10:35Z</time></trkpt><trkpt lat="44.06671850084094" lon="4.235853848339188"><ele>131.0</ele><time>2026-04-03T11:10:36Z</time></trkpt><trkpt lat="44.06667843914555" lon="4.236179134938782"><ele>131.0</ele><time>2026-04-03T11:10:37Z</time></trkpt><trkpt lat="44.06663237509424" lon="4.236497049668966"><ele>131.0</ele><time>2026-04-03T11:10:38Z</time></trkpt><trkpt lat="44.06658557440558" lon="4.236809107186734"><ele>131.0</ele><time>2026-04-03T11:10:39Z</time></trkpt><trkpt lat="44.06654443255804" lon="4.23712535576136"><ele>131.0</ele><time>2026-04-03T11:10:40Z</time></trkpt><trkpt lat="44.06650525513634" lon="4.2374374511004635"><ele>132.0</ele><time>2026-04-03T11:10:41Z</time></trkpt><trkpt lat="44.06646096440732" lon="4.237747872231679"><ele>133.0</ele><time>2026-04-03T11:10:42Z</time></trkpt><trkpt lat="44.06641342138954" lon="4.238056698422682"><ele>133.0</ele><time>2026-04-03T11:10:43Z</time></trkpt><trkpt lat="44.066371156206905" lon="4.238362567318984"><ele>133.0</ele><time>2026-04-03T11:10:44Z</time></trkpt><trkpt lat="44.06633459867398" lon="4.238662252432084"><ele>133.0</ele><time>2026-04-03T11:10:45Z</time></trkpt><trkpt lat="44.06629789032505" lon="4.238975271190946"><ele>134.5</ele><time>2026-04-03T11:10:46Z</time></trkpt><trkpt lat="44.06625692334879" lon="4.2392868020753385"><ele>136.0</ele><time>2026-04-03T11:10:47Z</time></trkpt><trkpt lat="44.06621397385268" lon="4.239595900968567"><ele>137.33333333333334</ele><time>2026-04-03T11:10:48Z</time></trkpt><trkpt lat="44.06618023590991" lon="4.239900949592158"><ele>138.66666666666666</ele><time>2026-04-03T11:10:49Z</time></trkpt><trkpt lat="44.066160634848195" lon="4.240210011992579"><ele>140.0</ele><time>2026-04-03T11:10:50Z</time></trkpt><trkpt lat="44.06614223133703" lon="4.240520308337529"><ele>142.0</ele><time>2026-04-03T11:10:51Z</time></trkpt><trkpt lat="44.06611810710795" lon="4.24083680336941"><ele>144.0</ele><time>2026-04-03T11:10:52Z</time></trkpt><trkpt lat="44.066095129145026" lon="4.24115610765669"><ele>145.0</ele><time>2026-04-03T11:10:53Z</time></trkpt><trkpt lat="44.06607587612062" lon="4.241482308925215"><ele>146.0</ele><time>2026-04-03T11:10:54Z</time></trkpt><trkpt lat="44.066057708134316" lon="4.241809290874521"><ele>146.0</ele><time>2026-04-03T11:10:55Z</time></trkpt><trkpt lat="44.06603441990286" lon="4.242138899660072"><ele>146.0</ele><time>2026-04-03T11:10:56Z</time></trkpt><trkpt lat="44.06600745191837" lon="4.242468039606311"><ele>147.0</ele><time>2026-04-03T11:10:57Z</time></trkpt><trkpt lat="44.06598149204708" lon="4.2427956059948535"><ele>148.0</ele><time>2026-04-03T11:10:58Z</time></trkpt><trkpt lat="44.065955728519604" lon="4.2431206884215635"><ele>150.0</ele><time>2026-04-03T11:10:59Z</time></trkpt><trkpt lat="44.065932855520934" lon="4.243441031418634"><ele>152.0</ele><time>2026-04-03T11:11:00Z</time></trkpt><trkpt lat="44.06591063240066" lon="4.243757021595825"><ele>152.5</ele><time>2026-04-03T11:11:01Z</time></trkpt><trkpt lat="44.065885962821646" lon="4.244070744609322"><ele>153.0</ele><time>2026-04-03T11:11:02Z</time></trkpt><trkpt lat="44.06585979574958" lon="4.244381099943946"><ele>153.0</ele><time>2026-04-03T11:11:03Z</time></trkpt><trkpt lat="44.0658333786373" lon="4.244692153595967"><ele>153.0</ele><time>2026-04-03T11:11:04Z</time></trkpt><trkpt lat="44.06580338262876" lon="4.245013280839807"><ele>153.0</ele><time>2026-04-03T11:11:05Z</time></trkpt><trkpt lat="44.06576238869101" lon="4.245353889019926"><ele>153.0</ele><time>2026-04-03T11:11:06Z</time></trkpt><trkpt lat="44.06571760895256" lon="4.245717468407507"><ele>153.5</ele><time>2026-04-03T11:11:07Z</time></trkpt><trkpt lat="44.065677197850746" lon="4.246103818138997"><ele>154.0</ele><time>2026-04-03T11:11:08Z</time></trkpt><trkpt lat="44.065635061822675" lon="4.246505366737912"><ele>154.5</ele><time>2026-04-03T11:11:09Z</time></trkpt><trkpt lat="44.065592185411155" lon="4.246919163504828"><ele>155.0</ele><time>2026-04-03T11:11:10Z</time></trkpt><trkpt lat="44.06554626618277" lon="4.247343094125403"><ele>156.5</ele><time>2026-04-03T11:11:11Z</time></trkpt><trkpt lat="44.06549324640029" lon="4.247773900260311"><ele>158.0</ele><time>2026-04-03T11:11:12Z</time></trkpt><trkpt lat="44.06543451317807" lon="4.248203199165949"><ele>159.0</ele><time>2026-04-03T11:11:13Z</time></trkpt><trkpt lat="44.06536836494058" lon="4.248613792014122"><ele>160.0</ele><time>2026-04-03T11:11:14Z</time></trkpt><trkpt lat="44.06531385482745" lon="4.249005934885443"><ele>163.0</ele><time>2026-04-03T11:11:15Z</time></trkpt><trkpt lat="44.06527598311125" lon="4.249401216556031"><ele>166.0</ele><time>2026-04-03T11:11:16Z</time></trkpt><trkpt lat="44.065247303929986" lon="4.249798499050095"><ele>168.5</ele><time>2026-04-03T11:11:17Z</time></trkpt><trkpt lat="44.06519559118586" lon="4.250203543635316"><ele>171.0</ele><time>2026-04-03T11:11:18Z</time></trkpt><trkpt lat="44.065124097484954" lon="4.250575632277416"><ele>172.5</ele><time>2026-04-03T11:11:19Z</time></trkpt><trkpt lat="44.06503805953314" lon="4.250928943204743"><ele>174.0</ele><time>2026-04-03T11:11:20Z</time></trkpt><trkpt lat="44.064945962569276" lon="4.251290662272052"><ele>173.0</ele><time>2026-04-03T11:11:21Z</time></trkpt><trkpt lat="44.064858619191185" lon="4.251643376969701"><ele>172.0</ele><time>2026-04-03T11:11:22Z</time></trkpt><trkpt lat="44.06477649943383" lon="4.251979521234352"><ele>174.0</ele><time>2026-04-03T11:11:23Z</time></trkpt><trkpt lat="44.064689593893725" lon="4.252325468669725"><ele>176.0</ele><time>2026-04-03T11:11:24Z</time></trkpt><trkpt lat="44.06460010171423" lon="4.252677569484738"><ele>176.0</ele><time>2026-04-03T11:11:25Z</time></trkpt><trkpt lat="44.06450778117853" lon="4.253022360465915"><ele>176.0</ele><time>2026-04-03T11:11:26Z</time></trkpt><trkpt lat="44.064406773437746" lon="4.253373738408958"><ele>178.5</ele><time>2026-04-03T11:11:27Z</time></trkpt><trkpt lat="44.06432279105499" lon="4.253721183465756"><ele>181.0</ele><time>2026-04-03T11:11:28Z</time></trkpt><trkpt lat="44.064235300792205" lon="4.254069460479204"><ele>183.5</ele><time>2026-04-03T11:11:29Z</time></trkpt><trkpt lat="44.06413944288034" lon="4.254414311228552"><ele>186.0</ele><time>2026-04-03T11:11:30Z</time></trkpt><trkpt lat="44.06403372567027" lon="4.25475132874338"><ele>188.0</ele><time>2026-04-03T11:11:31Z</time></trkpt><trkpt lat="44.06391605981746" lon="4.255081856127924"><ele>190.0</ele><time>2026-04-03T11:11:32Z</time></trkpt><trkpt lat="44.06378170436972" lon="4.255405169248099"><ele>192.0</ele><time>2026-04-03T11:11:33Z</time></trkpt><trkpt lat="44.06364827210537" lon="4.2557399533390114"><ele>194.0</ele><time>2026-04-03T11:11:34Z</time></trkpt><trkpt lat="44.063481762603374" lon="4.256068449086038"><ele>194.0</ele><time>2026-04-03T11:11:35Z</time></trkpt><trkpt lat="44.06331995012262" lon="4.256396945659185"><ele>194.0</ele><time>2026-04-03T11:11:36Z</time></trkpt><trkpt lat="44.06316183010466" lon="4.256732839966804"><ele>194.0</ele><time>2026-04-03T11:11:37Z</time></trkpt><trkpt lat="44.062998255218915" lon="4.2570918105920805"><ele>194.0</ele><time>2026-04-03T11:11:38Z</time></trkpt><trkpt lat="44.06283139456646" lon="4.257444736630133"><ele>191.5</ele><time>2026-04-03T11:11:39Z</time></trkpt><trkpt lat="44.06266161740421" lon="4.25778523738461"><ele>189.0</ele><time>2026-04-03T11:11:40Z</time></trkpt><trkpt lat="44.06249331077982" lon="4.2581273230111"><ele>183.0</ele><time>2026-04-03T11:11:41Z</time></trkpt><trkpt lat="44.06234355982958" lon="4.258490920660238"><ele>177.0</ele><time>2026-04-03T11:11:42Z</time></trkpt><trkpt lat="44.06220996262859" lon="4.258877512781665"><ele>176.5</ele><time>2026-04-03T11:11:43Z</time></trkpt><trkpt lat="44.06206115244292" lon="4.259266554142011"><ele>176.0</ele><time>2026-04-03T11:11:44Z</time></trkpt><trkpt lat="44.06190533423404" lon="4.259646659599343"><ele>177.0</ele><time>2026-04-03T11:11:45Z</time></trkpt><trkpt lat="44.061757696659846" lon="4.260013947426634"><ele>178.0</ele><time>2026-04-03T11:11:46Z</time></trkpt><trkpt lat="44.061615172421504" lon="4.2603766297809935"><ele>175.0</ele><time>2026-04-03T11:11:47Z</time></trkpt><trkpt lat="44.0614739204336" lon="4.260729817881827"><ele>172.0</ele><time>2026-04-03T11:11:48Z</time></trkpt><trkpt lat="44.06132687996069" lon="4.261055476172016"><ele>172.0</ele><time>2026-04-03T11:11:49Z</time></trkpt><trkpt lat="44.061171031226856" lon="4.261346085911607"><ele>172.0</ele><time>2026-04-03T11:11:50Z</time></trkpt><trkpt lat="44.060998253667435" lon="4.261612291055806"><ele>173.5</ele><time>2026-04-03T11:11:51Z</time></trkpt><trkpt lat="44.060796645357534" lon="4.261869436942607"><ele>175.0</ele><time>2026-04-03T11:11:52Z</time></trkpt><trkpt lat="44.06058002555582" lon="4.2621117027592765"><ele>173.0</ele><time>2026-04-03T11:11:53Z</time></trkpt><trkpt lat="44.06035881247237" lon="4.262346848807045"><ele>171.0</ele><time>2026-04-03T11:11:54Z</time></trkpt><trkpt lat="44.060135429048486" lon="4.26257169940213"><ele>169.0</ele><time>2026-04-03T11:11:55Z</time></trkpt><trkpt lat="44.059906976378684" lon="4.262796518160335"><ele>167.0</ele><time>2026-04-03T11:11:56Z</time></trkpt><trkpt lat="44.059678019803854" lon="4.2630167159674315"><ele>167.0</ele><time>2026-04-03T11:11:57Z</time></trkpt><trkpt lat="44.059464770312125" lon="4.263252413820341"><ele>167.0</ele><time>2026-04-03T11:11:58Z</time></trkpt><trkpt lat="44.05924985542474" lon="4.263486837976904"><ele>166.5</ele><time>2026-04-03T11:11:59Z</time></trkpt><trkpt lat="44.05902709274343" lon="4.263710026631305"><ele>166.0</ele><time>2026-04-03T11:12:00Z</time></trkpt><trkpt lat="44.058805144135036" lon="4.263935545611691"><ele>168.0</ele><time>2026-04-03T11:12:01Z</time></trkpt><trkpt lat="44.058584895818186" lon="4.2641986249334165"><ele>170.0</ele><time>2026-04-03T11:12:02Z</time></trkpt><trkpt lat="44.05837470628268" lon="4.264500421694184"><ele>176.5</ele><time>2026-04-03T11:12:03Z</time></trkpt><trkpt lat="44.05818239701213" lon="4.264811749975366"><ele>183.0</ele><time>2026-04-03T11:12:04Z</time></trkpt><trkpt lat="44.058000289545774" lon="4.265143517477026"><ele>183.0</ele><time>2026-04-03T11:12:05Z</time></trkpt><trkpt lat="44.05783348276209" lon="4.26548668893809"><ele>183.0</ele><time>2026-04-03T11:12:06Z</time></trkpt><trkpt lat="44.05767310482582" lon="4.265834197381482"><ele>183.0</ele><time>2026-04-03T11:12:07Z</time></trkpt><trkpt lat="44.05750944597451" lon="4.2661734274645955"><ele>183.0</ele><time>2026-04-03T11:12:08Z</time></trkpt><trkpt lat="44.057349215765896" lon="4.26650928764771"><ele>185.0</ele><time>2026-04-03T11:12:09Z</time></trkpt><trkpt lat="44.05719644965554" lon="4.266838204767603"><ele>187.0</ele><time>2026-04-03T11:12:10Z</time></trkpt><trkpt lat="44.0570445087129" lon="4.267162409500028"><ele>187.0</ele><time>2026-04-03T11:12:11Z</time></trkpt><trkpt lat="44.056896833626375" lon="4.267480969539559"><ele>187.0</ele><time>2026-04-03T11:12:12Z</time></trkpt><trkpt lat="44.05676063670804" lon="4.26780876352919"><ele>187.5</ele><time>2026-04-03T11:12:13Z</time></trkpt><trkpt lat="44.05663521852305" lon="4.268143340259915"><ele>188.0</ele><time>2026-04-03T11:12:14Z</time></trkpt><trkpt lat="44.056524152157714" lon="4.268491915297459"><ele>194.0</ele><time>2026-04-03T11:12:15Z</time></trkpt><trkpt lat="44.05642543102051" lon="4.268846877177752"><ele>200.0</ele><time>2026-04-03T11:12:16Z</time></trkpt><trkpt lat="44.05633530463693" lon="4.2692052674557495"><ele>201.5</ele><time>2026-04-03T11:12:17Z</time></trkpt><trkpt lat="44.05625558775933" lon="4.269563087165606"><ele>203.0</ele><time>2026-04-03T11:12:18Z</time></trkpt><trkpt lat="44.05618511014154" lon="4.269924738108901"><ele>203.0</ele><time>2026-04-03T11:12:19Z</time></trkpt><trkpt lat="44.05612640817274" lon="4.270292191017835"><ele>203.0</ele><time>2026-04-03T11:12:20Z</time></trkpt><trkpt lat="44.05607853356664" lon="4.270654717704662"><ele>200.0</ele><time>2026-04-03T11:12:21Z</time></trkpt><trkpt lat="44.05603989519543" lon="4.271025300572325"><ele>197.0</ele><time>2026-04-03T11:12:22Z</time></trkpt><trkpt lat="44.0560067435954" lon="4.271406339641919"><ele>194.5</ele><time>2026-04-03T11:12:23Z</time></trkpt><trkpt lat="44.055987297707006" lon="4.2717922359170775"><ele>192.0</ele><time>2026-04-03T11:12:24Z</time></trkpt><trkpt lat="44.055978348600725" lon="4.272180269189617"><ele>189.5</ele><time>2026-04-03T11:12:25Z</time></trkpt><trkpt lat="44.055984339677146" lon="4.272565714944318"><ele>187.0</ele><time>2026-04-03T11:12:26Z</time></trkpt><trkpt lat="44.05599241060341" lon="4.272963518209663"><ele>185.0</ele><time>2026-04-03T11:12:27Z</time></trkpt><trkpt lat="44.05598898931317" lon="4.273366763638793"><ele>183.0</ele><time>2026-04-03T11:12:28Z</time></trkpt><trkpt lat="44.05597038086206" lon="4.273771713773721"><ele>181.0</ele><time>2026-04-03T11:12:29Z</time></trkpt><trkpt lat="44.05593831443755" lon="4.274175906844745"><ele>179.0</ele><time>2026-04-03T11:12:30Z</time></trkpt><trkpt lat="44.055890872481925" lon="4.2745798773012105"><ele>179.5</ele><time>2026-04-03T11:12:31Z</time></trkpt><trkpt lat="44.05582608851733" lon="4.274983138799893"><ele>180.0</ele><time>2026-04-03T11:12:32Z</time></trkpt><trkpt lat="44.055762226275185" lon="4.275387051704244"><ele>179.5</ele><time>2026-04-03T11:12:33Z</time></trkpt><trkpt lat="44.05570337383982" lon="4.275793736905377"><ele>179.0</ele><time>2026-04-03T11:12:34Z</time></trkpt><trkpt lat="44.05565092364002" lon="4.276194543740925"><ele>177.5</ele><time>2026-04-03T11:12:35Z</time></trkpt><trkpt lat="44.055598560630834" lon="4.276596656422728"><ele>176.0</ele><time>2026-04-03T11:12:36Z</time></trkpt><trkpt lat="44.05553981843157" lon="4.276991553049681"><ele>175.5</ele><time>2026-04-03T11:12:37Z</time></trkpt><trkpt lat="44.0554781918086" lon="4.277383658641552"><ele>175.0</ele><time>2026-04-03T11:12:38Z</time></trkpt><trkpt lat="44.0554233033214" lon="4.277775736598363"><ele>175.5</ele><time>2026-04-03T11:12:39Z</time></trkpt><trkpt lat="44.0553823757418" lon="4.278168692351071"><ele>176.0</ele><time>2026-04-03T11:12:40Z</time></trkpt><trkpt lat="44.05535096837355" lon="4.27855349128485"><ele>174.5</ele><time>2026-04-03T11:12:41Z</time></trkpt><trkpt lat="44.05531836704485" lon="4.278942360000547"><ele>173.0</ele><time>2026-04-03T11:12:42Z</time></trkpt><trkpt lat="44.05529565793483" lon="4.279325372243529"><ele>173.0</ele><time>2026-04-03T11:12:43Z</time></trkpt><trkpt lat="44.05528675313056" lon="4.2797124404815845"><ele>173.0</ele><time>2026-04-03T11:12:44Z</time></trkpt><trkpt lat="44.055273321542806" lon="4.280104886061587"><ele>170.0</ele><time>2026-04-03T11:12:45Z</time></trkpt><trkpt lat="44.055244820702015" lon="4.280494944850381"><ele>167.0</ele><time>2026-04-03T11:12:46Z</time></trkpt><trkpt lat="44.055233405336715" lon="4.280890869172875"><ele>166.5</ele><time>2026-04-03T11:12:47Z</time></trkpt><trkpt lat="44.05524165377291" lon="4.281277094930404"><ele>166.0</ele><time>2026-04-03T11:12:48Z</time></trkpt><trkpt lat="44.05523700163952" lon="4.281650690509693"><ele>165.5</ele><time>2026-04-03T11:12:49Z</time></trkpt><trkpt lat="44.055217279796274" lon="4.281990130676473"><ele>165.0</ele><time>2026-04-03T11:12:50Z</time></trkpt><trkpt lat="44.05520565972269" lon="4.282339748726692"><ele>165.0</ele><time>2026-04-03T11:12:51Z</time></trkpt><trkpt lat="44.055198491635814" lon="4.282686684500753"><ele>165.0</ele><time>2026-04-03T11:12:52Z</time></trkpt><trkpt lat="44.055164242352845" lon="4.283031587265207"><ele>165.0</ele><time>2026-04-03T11:12:53Z</time></trkpt><trkpt lat="44.055107548078524" lon="4.283353581622532"><ele>165.0</ele><time>2026-04-03T11:12:54Z</time></trkpt><trkpt lat="44.05504579738583" lon="4.283655337484775"><ele>166.0</ele><time>2026-04-03T11:12:55Z</time></trkpt><trkpt lat="44.05498400261802" lon="4.283968097884651"><ele>167.0</ele><time>2026-04-03T11:12:56Z</time></trkpt><trkpt lat="44.05491648014569" lon="4.284293337890634"><ele>164.5</ele><time>2026-04-03T11:12:57Z</time></trkpt><trkpt lat="44.05483124159595" lon="4.284627963617905"><ele>162.0</ele><time>2026-04-03T11:12:58Z</time></trkpt><trkpt lat="44.054715172801004" lon="4.284936237297055"><ele>162.0</ele><time>2026-04-03T11:12:59Z</time></trkpt><trkpt lat="44.05454685362136" lon="4.285193469764986"><ele>162.0</ele><time>2026-04-03T11:13:00Z</time></trkpt><trkpt lat="44.05435735089633" lon="4.285406045227681"><ele>162.0</ele><time>2026-04-03T11:13:01Z</time></trkpt><trkpt lat="44.05415427892493" lon="4.285583757463629"><ele>162.0</ele><time>2026-04-03T11:13:02Z</time></trkpt><trkpt lat="44.05394625365316" lon="4.285752905751963"><ele>160.5</ele><time>2026-04-03T11:13:03Z</time></trkpt><trkpt lat="44.053740671447066" lon="4.285945914618112"><ele>159.0</ele><time>2026-04-03T11:13:04Z</time></trkpt><trkpt lat="44.053536310107525" lon="4.2861480101780485"><ele>159.0</ele><time>2026-04-03T11:13:05Z</time></trkpt><trkpt lat="44.05333182450175" lon="4.28634381463142"><ele>159.0</ele><time>2026-04-03T11:13:06Z</time></trkpt><trkpt lat="44.0531251250724" lon="4.286539432408929"><ele>158.0</ele><time>2026-04-03T11:13:07Z</time></trkpt><trkpt lat="44.05292582514666" lon="4.286732885135162"><ele>157.0</ele><time>2026-04-03T11:13:08Z</time></trkpt><trkpt lat="44.05273809513378" lon="4.286919805687113"><ele>157.0</ele><time>2026-04-03T11:13:09Z</time></trkpt><trkpt lat="44.05254570150165" lon="4.287113447684882"><ele>157.0</ele><time>2026-04-03T11:13:10Z</time></trkpt><trkpt lat="44.05235705473402" lon="4.2873003340000935"><ele>155.5</ele><time>2026-04-03T11:13:11Z</time></trkpt><trkpt lat="44.05216442520937" lon="4.287483732014764"><ele>154.0</ele><time>2026-04-03T11:13:12Z</time></trkpt><trkpt lat="44.05196869680811" lon="4.287666239061095"><ele>154.0</ele><time>2026-04-03T11:13:13Z</time></trkpt><trkpt lat="44.051774304835284" lon="4.287853879256332"><ele>154.0</ele><time>2026-04-03T11:13:14Z</time></trkpt><trkpt lat="44.05159011092367" lon="4.288040631012672"><ele>153.0</ele><time>2026-04-03T11:13:15Z</time></trkpt><trkpt lat="44.0514128621675" lon="4.288218713813663"><ele>152.0</ele><time>2026-04-03T11:13:16Z</time></trkpt><trkpt lat="44.05124535283494" lon="4.288383341560773"><ele>151.0</ele><time>2026-04-03T11:13:17Z</time></trkpt><trkpt lat="44.051079518975456" lon="4.288533105785627"><ele>151.0</ele><time>2026-04-03T11:13:18Z</time></trkpt><trkpt lat="44.050921127953856" lon="4.288673096648227"><ele>151.0</ele><time>2026-04-03T11:13:19Z</time></trkpt><trkpt lat="44.05076653625694" lon="4.288831232668662"><ele>151.0</ele><time>2026-04-03T11:13:20Z</time></trkpt><trkpt lat="44.05059855853701" lon="4.289004438315748"><ele>152.33333333333334</ele><time>2026-04-03T11:13:21Z</time></trkpt><trkpt lat="44.05043531653209" lon="4.2891598138748215"><ele>153.66666666666666</ele><time>2026-04-03T11:13:22Z</time></trkpt><trkpt lat="44.05028587215102" lon="4.289296760360265"><ele>155.0</ele><time>2026-04-03T11:13:23Z</time></trkpt><trkpt lat="44.05014114223055" lon="4.289432233603539"><ele>155.0</ele><time>2026-04-03T11:13:24Z</time></trkpt><trkpt lat="44.049996708188885" lon="4.289565811568799"><ele>155.0</ele><time>2026-04-03T11:13:25Z</time></trkpt><trkpt lat="44.04984869278035" lon="4.289713814794291"><ele>155.0</ele><time>2026-04-03T11:13:26Z</time></trkpt><trkpt lat="44.04969403284458" lon="4.289868246056425"><ele>153.66666666666666</ele><time>2026-04-03T11:13:27Z</time></trkpt><trkpt lat="44.04954330603513" lon="4.290009620597687"><ele>152.33333333333334</ele><time>2026-04-03T11:13:28Z</time></trkpt><trkpt lat="44.04939488086804" lon="4.290147062794565"><ele>151.0</ele><time>2026-04-03T11:13:29Z</time></trkpt><trkpt lat="44.04924794828935" lon="4.29029020518321"><ele>149.33333333333334</ele><time>2026-04-03T11:13:30Z</time></trkpt><trkpt lat="44.04910048369164" lon="4.290430469825986"><ele>147.66666666666666</ele><time>2026-04-03T11:13:31Z</time></trkpt><trkpt lat="44.04894986715771" lon="4.29057255529709"><ele>146.0</ele><time>2026-04-03T11:13:32Z</time></trkpt><trkpt lat="44.04880337007913" lon="4.290719071656478"><ele>146.0</ele><time>2026-04-03T11:13:33Z</time></trkpt><trkpt lat="44.04865745878386" lon="4.2908707232103716"><ele>146.0</ele><time>2026-04-03T11:13:34Z</time></trkpt><trkpt lat="44.04851415058594" lon="4.2910390171693145"><ele>146.0</ele><time>2026-04-03T11:13:35Z</time></trkpt><trkpt lat="44.048383647836545" lon="4.291239973916216"><ele>145.33333333333331</ele><time>2026-04-03T11:13:36Z</time></trkpt><trkpt lat="44.04827284329008" lon="4.291449516623485"><ele>144.66666666666666</ele><time>2026-04-03T11:13:37Z</time></trkpt><trkpt lat="44.04816993849286" lon="4.291665603987094"><ele>144.0</ele><time>2026-04-03T11:13:38Z</time></trkpt><trkpt lat="44.048059569186094" lon="4.291877752182582"><ele>144.0</ele><time>2026-04-03T11:13:39Z</time></trkpt><trkpt lat="44.04794281748686" lon="4.292089573105597"><ele>144.0</ele><time>2026-04-03T11:13:40Z</time></trkpt><trkpt lat="44.04782048059087" lon="4.292312037131854"><ele>144.0</ele><time>2026-04-03T11:13:41Z</time></trkpt><trkpt lat="44.04769438295939" lon="4.29255074485728"><ele>144.33333333333334</ele><time>2026-04-03T11:13:42Z</time></trkpt><trkpt lat="44.0475746246929" lon="4.292795829364756"><ele>144.66666666666669</ele><time>2026-04-03T11:13:43Z</time></trkpt><trkpt lat="44.047460886384656" lon="4.293039672634311"><ele>145.0</ele><time>2026-04-03T11:13:44Z</time></trkpt><trkpt lat="44.04734927826418" lon="4.293270045766135"><ele>145.33333333333334</ele><time>2026-04-03T11:13:45Z</time></trkpt><trkpt lat="44.0472414021147" lon="4.293488968062005"><ele>145.66666666666666</ele><time>2026-04-03T11:13:46Z</time></trkpt><trkpt lat="44.04713912774623" lon="4.29371383154676"><ele>146.0</ele><time>2026-04-03T11:13:47Z</time></trkpt><trkpt lat="44.04703833884371" lon="4.29394036276105"><ele>146.0</ele><time>2026-04-03T11:13:48Z</time></trkpt><trkpt lat="44.04693527884736" lon="4.294160856478814"><ele>146.0</ele><time>2026-04-03T11:13:49Z</time></trkpt><trkpt lat="44.046834262832675" lon="4.294379787684386"><ele>146.0</ele><time>2026-04-03T11:13:50Z</time></trkpt><trkpt lat="44.04672918332757" lon="4.294600391482667"><ele>146.33333333333331</ele><time>2026-04-03T11:13:51Z</time></trkpt><trkpt lat="44.046627145990364" lon="4.294816707483246"><ele>146.66666666666666</ele><time>2026-04-03T11:13:52Z</time></trkpt><trkpt lat="44.046526434844424" lon="4.295035674464758"><ele>147.0</ele><time>2026-04-03T11:13:53Z</time></trkpt><trkpt lat="44.04643058347319" lon="4.295249969216372"><ele>147.0</ele><time>2026-04-03T11:13:54Z</time></trkpt><trkpt lat="44.04633376952412" lon="4.295461687302659"><ele>147.0</ele><time>2026-04-03T11:13:55Z</time></trkpt><trkpt lat="44.046230407149565" lon="4.29567833464579"><ele>147.0</ele><time>2026-04-03T11:13:56Z</time></trkpt><trkpt lat="44.046128567374474" lon="4.295899959316991"><ele>147.66666666666666</ele><time>2026-04-03T11:13:57Z</time></trkpt><trkpt lat="44.046030536642675" lon="4.29611710735266"><ele>148.33333333333331</ele><time>2026-04-03T11:13:58Z</time></trkpt><trkpt lat="44.04593483705293" lon="4.296330657944339"><ele>149.0</ele><time>2026-04-03T11:13:59Z</time></trkpt><trkpt lat="44.045839514594284" lon="4.296542371147712"><ele>148.33333333333331</ele><time>2026-04-03T11:14:00Z</time></trkpt><trkpt lat="44.045741442953215" lon="4.29675307083335"><ele>147.66666666666666</ele><time>2026-04-03T11:14:01Z</time></trkpt><trkpt lat="44.04564046574198" lon="4.296962016600006"><ele>147.0</ele><time>2026-04-03T11:14:02Z</time></trkpt><trkpt lat="44.04554391987802" lon="4.297176242008089"><ele>148.33333333333334</ele><time>2026-04-03T11:14:03Z</time></trkpt><trkpt lat="44.04545124840436" lon="4.297386667159653"><ele>149.66666666666669</ele><time>2026-04-03T11:14:04Z</time></trkpt><trkpt lat="44.045362976612466" lon="4.29758897003691"><ele>151.0</ele><time>2026-04-03T11:14:05Z</time></trkpt><trkpt lat="44.045279332070955" lon="4.297771634203872"><ele>151.0</ele><time>2026-04-03T11:14:06Z</time></trkpt><trkpt lat="44.045196187075454" lon="4.297932032242255"><ele>151.0</ele><time>2026-04-03T11:14:07Z</time></trkpt><trkpt lat="44.04512068032393" lon="4.2980963161184915"><ele>151.0</ele><time>2026-04-03T11:14:08Z</time></trkpt><trkpt lat="44.04504846554325" lon="4.298253267925494"><ele>151.0</ele><time>2026-04-03T11:14:09Z</time></trkpt><trkpt lat="44.04498457357577" lon="4.298394279139448"><ele>151.25</ele><time>2026-04-03T11:14:10Z</time></trkpt><trkpt lat="44.044915927485704" lon="4.298530347547099"><ele>151.5</ele><time>2026-04-03T11:14:11Z</time></trkpt><trkpt lat="44.04483828817214" lon="4.298658415575938"><ele>151.75</ele><time>2026-04-03T11:14:12Z</time></trkpt><trkpt lat="44.0447541406544" lon="4.298778675333986"><ele>152.0</ele><time>2026-04-03T11:14:13Z</time></trkpt><trkpt lat="44.04467442591861" lon="4.298871111513716"><ele>152.0</ele><time>2026-04-03T11:14:14Z</time></trkpt><trkpt lat="44.044577331535564" lon="4.298972365141078"><ele>152.0</ele><time>2026-04-03T11:14:15Z</time></trkpt><trkpt lat="44.0445056789408" lon="4.299045100005958"><ele>152.0</ele><time>2026-04-03T11:14:16Z</time></trkpt><trkpt lat="44.04442401676565" lon="4.299102819995847"><ele>152.0</ele><time>2026-04-03T11:14:17Z</time></trkpt><trkpt lat="44.04432528419335" lon="4.299090006481431"><ele>152.0</ele><time>2026-04-03T11:14:18Z</time></trkpt><trkpt lat="44.044247300177716" lon="4.299118594616239"><ele>152.0</ele><time>2026-04-03T11:14:19Z</time></trkpt><trkpt lat="44.044173917103116" lon="4.29912015713091"><ele>152.0</ele><time>2026-04-03T11:14:20Z</time></trkpt><trkpt lat="44.04411196936718" lon="4.299171465991305"><ele>152.0</ele><time>2026-04-03T11:14:21Z</time></trkpt><trkpt lat="44.044074932564705" lon="4.299259310813759"><ele>152.0</ele><time>2026-04-03T11:14:22Z</time></trkpt><trkpt lat="44.04406801340338" lon="4.2993699660149245"><ele>152.0</ele><time>2026-04-03T11:14:23Z</time></trkpt><trkpt lat="44.04408897559881" lon="4.299487293830468"><ele>152.0</ele><time>2026-04-03T11:14:24Z</time></trkpt><trkpt lat="44.04413634941639" lon="4.2995977958372995"><ele>152.0</ele><time>2026-04-03T11:14:25Z</time></trkpt><trkpt lat="44.04418052609471" lon="4.299719394957119"><ele>152.0</ele><time>2026-04-03T11:14:26Z</time></trkpt><trkpt lat="44.0441920402606" lon="4.29987184104293"><ele>152.0</ele><time>2026-04-03T11:14:27Z</time></trkpt><trkpt lat="44.04416277073345" lon="4.300044664583397"><ele>152.0</ele><time>2026-04-03T11:14:28Z</time></trkpt><trkpt lat="44.044113309332616" lon="4.300218405567481"><ele>152.25</ele><time>2026-04-03T11:14:29Z</time></trkpt><trkpt lat="44.04406085094941" lon="4.300399352014459"><ele>152.5</ele><time>2026-04-03T11:14:30Z</time></trkpt><trkpt lat="44.043978982742495" lon="4.300571037588965"><ele>152.75</ele><time>2026-04-03T11:14:31Z</time></trkpt><trkpt lat="44.04390383483308" lon="4.300747546618622"><ele>153.0</ele><time>2026-04-03T11:14:32Z</time></trkpt><trkpt lat="44.04382278975909" lon="4.300926644080771"><ele>153.0</ele><time>2026-04-03T11:14:33Z</time></trkpt><trkpt lat="44.04372602736182" lon="4.301138678761688"><ele>153.0</ele><time>2026-04-03T11:14:34Z</time></trkpt><trkpt lat="44.04361548166115" lon="4.301378898660587"><ele>153.0</ele><time>2026-04-03T11:14:35Z</time></trkpt><trkpt lat="44.0435120823648" lon="4.301602678654996"><ele>153.66666666666666</ele><time>2026-04-03T11:14:36Z</time></trkpt><trkpt lat="44.0434191565127" lon="4.301829018265325"><ele>154.33333333333331</ele><time>2026-04-03T11:14:37Z</time></trkpt><trkpt lat="44.04330298281721" lon="4.302039644038188"><ele>155.0</ele><time>2026-04-03T11:14:38Z</time></trkpt><trkpt lat="44.04321056627107" lon="4.302261570040979"><ele>156.66666666666666</ele><time>2026-04-03T11:14:39Z</time></trkpt><trkpt lat="44.043114859365986" lon="4.302463525917329"><ele>158.33333333333334</ele><time>2026-04-03T11:14:40Z</time></trkpt><trkpt lat="44.043024424298956" lon="4.302671781993364"><ele>160.0</ele><time>2026-04-03T11:14:41Z</time></trkpt><trkpt lat="44.04292430147791" lon="4.302909991209574"><ele>159.33333333333334</ele><time>2026-04-03T11:14:42Z</time></trkpt><trkpt lat="44.04283313164443" lon="4.3031299671708805"><ele>158.66666666666666</ele><time>2026-04-03T11:14:43Z</time></trkpt><trkpt lat="44.0427541933529" lon="4.303351759999881"><ele>158.0</ele><time>2026-04-03T11:14:44Z</time></trkpt><trkpt lat="44.04268390932455" lon="4.303584400218634"><ele>158.0</ele><time>2026-04-03T11:14:45Z</time></trkpt><trkpt lat="44.04262204820369" lon="4.303820622245982"><ele>158.0</ele><time>2026-04-03T11:14:46Z</time></trkpt><trkpt lat="44.04258444083563" lon="4.304077641670093"><ele>158.0</ele><time>2026-04-03T11:14:47Z</time></trkpt><trkpt lat="44.042582770364945" lon="4.304360760921833"><ele>156.66666666666666</ele><time>2026-04-03T11:14:48Z</time></trkpt><trkpt lat="44.04259392401354" lon="4.304663529903378"><ele>155.33333333333334</ele><time>2026-04-03T11:14:49Z</time></trkpt><trkpt lat="44.04258629263731" lon="4.304964420009197"><ele>154.0</ele><time>2026-04-03T11:14:50Z</time></trkpt><trkpt lat="44.04257465657467" lon="4.30526142848151"><ele>153.0</ele><time>2026-04-03T11:14:51Z</time></trkpt><trkpt lat="44.04256814453453" lon="4.305563541069543"><ele>152.0</ele><time>2026-04-03T11:14:52Z</time></trkpt><trkpt lat="44.04256312002789" lon="4.305876237738988"><ele>151.0</ele><time>2026-04-03T11:14:53Z</time></trkpt><trkpt lat="44.04255148182818" lon="4.30618747587195"><ele>147.0</ele><time>2026-04-03T11:14:54Z</time></trkpt><trkpt lat="44.04254066880897" lon="4.3065034771747275"><ele>143.0</ele><time>2026-04-03T11:14:55Z</time></trkpt><trkpt lat="44.04253905245909" lon="4.306825569498196"><ele>143.0</ele><time>2026-04-03T11:14:56Z</time></trkpt><trkpt lat="44.042533126711334" lon="4.307158840303096"><ele>143.0</ele><time>2026-04-03T11:14:57Z</time></trkpt><trkpt lat="44.042527810422456" lon="4.307482775331877"><ele>142.66666666666666</ele><time>2026-04-03T11:14:58Z</time></trkpt><trkpt lat="44.04251962737321" lon="4.307794223623897"><ele>142.33333333333334</ele><time>2026-04-03T11:14:59Z</time></trkpt><trkpt lat="44.04250562047404" lon="4.308088560579893"><ele>142.0</ele><time>2026-04-03T11:15:00Z</time></trkpt><trkpt lat="44.0424963656681" lon="4.308361319725491"><ele>142.0</ele><time>2026-04-03T11:15:01Z</time></trkpt><trkpt lat="44.04248994211063" lon="4.308615898426173"><ele>142.0</ele><time>2026-04-03T11:15:02Z</time></trkpt><trkpt lat="44.04248356376823" lon="4.308859809692838"><ele>142.0</ele><time>2026-04-03T11:15:03Z</time></trkpt><trkpt lat="44.04246309974697" lon="4.309121807930903"><ele>143.33333333333334</ele><time>2026-04-03T11:15:04Z</time></trkpt><trkpt lat="44.042397639308426" lon="4.309401047767609"><ele>144.66666666666666</ele><time>2026-04-03T11:15:05Z</time></trkpt><trkpt lat="44.042294384386814" lon="4.309692140666621"><ele>146.0</ele><time>2026-04-03T11:15:06Z</time></trkpt><trkpt lat="44.042154209698836" lon="4.309962935696621"><ele>146.0</ele><time>2026-04-03T11:15:07Z</time></trkpt><trkpt lat="44.041989542828105" lon="4.310252711678381"><ele>146.0</ele><time>2026-04-03T11:15:08Z</time></trkpt><trkpt lat="44.04182745682015" lon="4.310534502836606"><ele>141.0</ele><time>2026-04-03T11:15:09Z</time></trkpt><trkpt lat="44.04166009300817" lon="4.310830119218686"><ele>136.0</ele><time>2026-04-03T11:15:10Z</time></trkpt><trkpt lat="44.04148575997857" lon="4.311140492082544"><ele>136.5</ele><time>2026-04-03T11:15:11Z</time></trkpt><trkpt lat="44.04131965032298" lon="4.311425811986461"><ele>137.0</ele><time>2026-04-03T11:15:12Z</time></trkpt><trkpt lat="44.04116778134266" lon="4.31169176046464"><ele>137.0</ele><time>2026-04-03T11:15:13Z</time></trkpt><trkpt lat="44.04102254228677" lon="4.311950144340473"><ele>137.0</ele><time>2026-04-03T11:15:14Z</time></trkpt><trkpt lat="44.040877244505374" lon="4.3122078975186104"><ele>137.5</ele><time>2026-04-03T11:15:15Z</time></trkpt><trkpt lat="44.040729601922855" lon="4.312474556030533"><ele>138.0</ele><time>2026-04-03T11:15:16Z</time></trkpt><trkpt lat="44.04058028536471" lon="4.312741831630144"><ele>138.0</ele><time>2026-04-03T11:15:17Z</time></trkpt><trkpt lat="44.04043083815272" lon="4.313001953560984"><ele>138.0</ele><time>2026-04-03T11:15:18Z</time></trkpt><trkpt lat="44.04028450336986" lon="4.313263161180627"><ele>138.5</ele><time>2026-04-03T11:15:19Z</time></trkpt><trkpt lat="44.0401416997672" lon="4.313527897606832"><ele>139.0</ele><time>2026-04-03T11:15:20Z</time></trkpt><trkpt lat="44.03999704097003" lon="4.313787464689739"><ele>140.5</ele><time>2026-04-03T11:15:21Z</time></trkpt><trkpt lat="44.03985214740371" lon="4.314043072729942"><ele>142.0</ele><time>2026-04-03T11:15:22Z</time></trkpt><trkpt lat="44.03970106354759" lon="4.314300806041126"><ele>142.0</ele><time>2026-04-03T11:15:23Z</time></trkpt><trkpt lat="44.0395542383269" lon="4.314557749136665"><ele>142.0</ele><time>2026-04-03T11:15:24Z</time></trkpt><trkpt lat="44.039418711097895" lon="4.314820202544709"><ele>144.5</ele><time>2026-04-03T11:15:25Z</time></trkpt><trkpt lat="44.039304261891466" lon="4.315093541797588"><ele>147.0</ele><time>2026-04-03T11:15:26Z</time></trkpt><trkpt lat="44.03923206460988" lon="4.315405430354075"><ele>149.0</ele><time>2026-04-03T11:15:27Z</time></trkpt><trkpt lat="44.03918808489664" lon="4.315756571512485"><ele>151.0</ele><time>2026-04-03T11:15:28Z</time></trkpt><trkpt lat="44.03914841993139" lon="4.316113530872414"><ele>152.0</ele><time>2026-04-03T11:15:29Z</time></trkpt><trkpt lat="44.03910034195817" lon="4.316460065387069"><ele>153.0</ele><time>2026-04-03T11:15:30Z</time></trkpt><trkpt lat="44.0390565053239" lon="4.316794001203627"><ele>153.0</ele><time>2026-04-03T11:15:31Z</time></trkpt><trkpt lat="44.039016127153445" lon="4.317130826674294"><ele>153.0</ele><time>2026-04-03T11:15:32Z</time></trkpt><trkpt lat="44.03897580645603" lon="4.317470041887215"><ele>154.5</ele><time>2026-04-03T11:15:33Z</time></trkpt><trkpt lat="44.03893009347157" lon="4.317806987557465"><ele>156.0</ele><time>2026-04-03T11:15:34Z</time></trkpt><trkpt lat="44.03888029467351" lon="4.318139707801282"><ele>158.0</ele><time>2026-04-03T11:15:35Z</time></trkpt><trkpt lat="44.038832162379414" lon="4.318474801522192"><ele>160.0</ele><time>2026-04-03T11:15:36Z</time></trkpt><trkpt lat="44.03879070821741" lon="4.318806788867176"><ele>160.0</ele><time>2026-04-03T11:15:37Z</time></trkpt><trkpt lat="44.038748811308345" lon="4.319141369399683"><ele>160.0</ele><time>2026-04-03T11:15:38Z</time></trkpt><trkpt lat="44.03870431132828" lon="4.31947113554252"><ele>161.0</ele><time>2026-04-03T11:15:39Z</time></trkpt><trkpt lat="44.0386622683832" lon="4.319805178608047"><ele>162.0</ele><time>2026-04-03T11:15:40Z</time></trkpt><trkpt lat="44.03861808818654" lon="4.320135295294747"><ele>162.0</ele><time>2026-04-03T11:15:41Z</time></trkpt><trkpt lat="44.038572977883206" lon="4.320458673498581"><ele>162.0</ele><time>2026-04-03T11:15:42Z</time></trkpt><trkpt lat="44.038530879385696" lon="4.320773713925232"><ele>163.0</ele><time>2026-04-03T11:15:43Z</time></trkpt><trkpt lat="44.0384935859527" lon="4.321073374196247"><ele>164.0</ele><time>2026-04-03T11:15:44Z</time></trkpt><trkpt lat="44.03845681376417" lon="4.3213651036924965"><ele>165.0</ele><time>2026-04-03T11:15:45Z</time></trkpt><trkpt lat="44.038417919187616" lon="4.3216567540780275"><ele>165.33333333333334</ele><time>2026-04-03T11:15:46Z</time></trkpt><trkpt lat="44.03838064927316" lon="4.321950166886613"><ele>165.66666666666669</ele><time>2026-04-03T11:15:47Z</time></trkpt><trkpt lat="44.03834082125101" lon="4.322249961431857"><ele>166.0</ele><time>2026-04-03T11:15:48Z</time></trkpt><trkpt lat="44.03829717120661" lon="4.322557230180164"><ele>166.5</ele><time>2026-04-03T11:15:49Z</time></trkpt><trkpt lat="44.03825734593186" lon="4.322870522590486"><ele>167.0</ele><time>2026-04-03T11:15:50Z</time></trkpt><trkpt lat="44.038224380722475" lon="4.323186587615678"><ele>167.0</ele><time>2026-04-03T11:15:51Z</time></trkpt><trkpt lat="44.03818213145342" lon="4.323500656459228"><ele>167.0</ele><time>2026-04-03T11:15:52Z</time></trkpt><trkpt lat="44.038131375756734" lon="4.32381389995161"><ele>170.0</ele><time>2026-04-03T11:15:53Z</time></trkpt><trkpt lat="44.03807590197704" lon="4.32412396679192"><ele>173.0</ele><time>2026-04-03T11:15:54Z</time></trkpt><trkpt lat="44.0380094278655" lon="4.324432257316971"><ele>174.0</ele><time>2026-04-03T11:15:55Z</time></trkpt><trkpt lat="44.03792319452194" lon="4.324737659409915"><ele>175.0</ele><time>2026-04-03T11:15:56Z</time></trkpt><trkpt lat="44.037829299924695" lon="4.325038792863574"><ele>175.0</ele><time>2026-04-03T11:15:57Z</time></trkpt><trkpt lat="44.03773934504393" lon="4.325337013218044"><ele>175.0</ele><time>2026-04-03T11:15:58Z</time></trkpt><trkpt lat="44.03765629392882" lon="4.325642919624316"><ele>172.5</ele><time>2026-04-03T11:15:59Z</time></trkpt><trkpt lat="44.037586009928766" lon="4.325955679933364"><ele>170.0</ele><time>2026-04-03T11:16:00Z</time></trkpt><trkpt lat="44.03752475509405" lon="4.32628283920475"><ele>168.0</ele><time>2026-04-03T11:16:01Z</time></trkpt><trkpt lat="44.03747908389207" lon="4.326615744763481"><ele>166.0</ele><time>2026-04-03T11:16:02Z</time></trkpt><trkpt lat="44.03745992413666" lon="4.326956772109358"><ele>164.0</ele><time>2026-04-03T11:16:03Z</time></trkpt><trkpt lat="44.03745005173783" lon="4.327324782758757"><ele>162.0</ele><time>2026-04-03T11:16:04Z</time></trkpt><trkpt lat="44.03743311641471" lon="4.327685089436524"><ele>162.0</ele><time>2026-04-03T11:16:05Z</time></trkpt><trkpt lat="44.037410304997024" lon="4.328042831116058"><ele>162.0</ele><time>2026-04-03T11:16:06Z</time></trkpt><trkpt lat="44.03738373918068" lon="4.328394308466151"><ele>160.5</ele><time>2026-04-03T11:16:07Z</time></trkpt><trkpt lat="44.03736196415203" lon="4.328734584504668"><ele>159.0</ele><time>2026-04-03T11:16:08Z</time></trkpt><trkpt lat="44.0373685113653" lon="4.329078358601171"><ele>157.0</ele><time>2026-04-03T11:16:09Z</time></trkpt><trkpt lat="44.0374189381975" lon="4.329425014775678"><ele>155.0</ele><time>2026-04-03T11:16:10Z</time></trkpt><trkpt lat="44.037479748758955" lon="4.32977117595062"><ele>154.0</ele><time>2026-04-03T11:16:11Z</time></trkpt><trkpt lat="44.037533497401014" lon="4.330112482276714"><ele>153.0</ele><time>2026-04-03T11:16:12Z</time></trkpt><trkpt lat="44.03757804236666" lon="4.330439092362507"><ele>151.5</ele><time>2026-04-03T11:16:13Z</time></trkpt><trkpt lat="44.03762676977384" lon="4.330765592080869"><ele>150.0</ele><time>2026-04-03T11:16:14Z</time></trkpt><trkpt lat="44.03767321288692" lon="4.331087429137523"><ele>148.5</ele><time>2026-04-03T11:16:15Z</time></trkpt><trkpt lat="44.03771427705494" lon="4.331409120686791"><ele>147.0</ele><time>2026-04-03T11:16:16Z</time></trkpt><trkpt lat="44.03775869175351" lon="4.331731315611379"><ele>147.0</ele><time>2026-04-03T11:16:17Z</time></trkpt><trkpt lat="44.03780502678493" lon="4.332057235232874"><ele>147.0</ele><time>2026-04-03T11:16:18Z</time></trkpt><trkpt lat="44.03785624314329" lon="4.33238612915908"><ele>146.5</ele><time>2026-04-03T11:16:19Z</time></trkpt><trkpt lat="44.037906303890985" lon="4.332713934053507"><ele>146.0</ele><time>2026-04-03T11:16:20Z</time></trkpt><trkpt lat="44.037949798026226" lon="4.3330490013308065"><ele>145.0</ele><time>2026-04-03T11:16:21Z</time></trkpt><trkpt lat="44.03799807897232" lon="4.333388208663514"><ele>144.0</ele><time>2026-04-03T11:16:22Z</time></trkpt><trkpt lat="44.03804975590651" lon="4.333729370948237"><ele>143.0</ele><time>2026-04-03T11:16:23Z</time></trkpt><trkpt lat="44.03809922791202" lon="4.334067595492428"><ele>142.0</ele><time>2026-04-03T11:16:24Z</time></trkpt><trkpt lat="44.03815643579544" lon="4.334400419740948"><ele>141.0</ele><time>2026-04-03T11:16:25Z</time></trkpt><trkpt lat="44.0382053636649" lon="4.334740116196952"><ele>140.0</ele><time>2026-04-03T11:16:26Z</time></trkpt><trkpt lat="44.038249168855764" lon="4.335076642332909"><ele>140.0</ele><time>2026-04-03T11:16:27Z</time></trkpt><trkpt lat="44.0382884426735" lon="4.3354082986737374"><ele>140.0</ele><time>2026-04-03T11:16:28Z</time></trkpt><trkpt lat="44.03833997547031" lon="4.335732065769944"><ele>138.0</ele><time>2026-04-03T11:16:29Z</time></trkpt><trkpt lat="44.03838153748998" lon="4.336060748765363"><ele>136.0</ele><time>2026-04-03T11:16:30Z</time></trkpt><trkpt lat="44.038430264016064" lon="4.336390084346284"><ele>135.5</ele><time>2026-04-03T11:16:31Z</time></trkpt><trkpt lat="44.038488279744605" lon="4.3367371884496215"><ele>135.0</ele><time>2026-04-03T11:16:32Z</time></trkpt><trkpt lat="44.03853988150093" lon="4.337107038532537"><ele>133.0</ele><time>2026-04-03T11:16:33Z</time></trkpt><trkpt lat="44.03858619710327" lon="4.337468124664279"><ele>131.0</ele><time>2026-04-03T11:16:34Z</time></trkpt><trkpt lat="44.038626421587004" lon="4.33780626913644"><ele>130.0</ele><time>2026-04-03T11:16:35Z</time></trkpt><trkpt lat="44.03867588968531" lon="4.338150974382818"><ele>129.0</ele><time>2026-04-03T11:16:36Z</time></trkpt><trkpt lat="44.03871927139101" lon="4.33849089471344"><ele>129.0</ele><time>2026-04-03T11:16:37Z</time></trkpt><trkpt lat="44.03876233474685" lon="4.338830749767942"><ele>129.0</ele><time>2026-04-03T11:16:38Z</time></trkpt><trkpt lat="44.03881141266245" lon="4.339161498767763"><ele>128.0</ele><time>2026-04-03T11:16:39Z</time></trkpt><trkpt lat="44.03886100900198" lon="4.33949048505861"><ele>127.0</ele><time>2026-04-03T11:16:40Z</time></trkpt><trkpt lat="44.03890715391004" lon="4.33981663895583"><ele>126.5</ele><time>2026-04-03T11:16:41Z</time></trkpt><trkpt lat="44.038950634338825" lon="4.340134308154011"><ele>126.0</ele><time>2026-04-03T11:16:42Z</time></trkpt><trkpt lat="44.0389883288056" lon="4.340452791852983"><ele>125.5</ele><time>2026-04-03T11:16:43Z</time></trkpt><trkpt lat="44.0390351259734" lon="4.340761638689382"><ele>125.0</ele><time>2026-04-03T11:16:44Z</time></trkpt><trkpt lat="44.03907462746988" lon="4.341069637561416"><ele>125.0</ele><time>2026-04-03T11:16:45Z</time></trkpt><trkpt lat="44.03911586892599" lon="4.341375754385782"><ele>125.0</ele><time>2026-04-03T11:16:46Z</time></trkpt><trkpt lat="44.0391712564333" lon="4.341672048838657"><ele>125.0</ele><time>2026-04-03T11:16:47Z</time></trkpt><trkpt lat="44.03924862543961" lon="4.341965748401422"><ele>123.0</ele><time>2026-04-03T11:16:48Z</time></trkpt><trkpt lat="44.039303198114126" lon="4.3422728392960295"><ele>121.0</ele><time>2026-04-03T11:16:49Z</time></trkpt><trkpt lat="44.03933088156125" lon="4.342588847410541"><ele>121.0</ele><time>2026-04-03T11:16:50Z</time></trkpt><trkpt lat="44.03932168854667" lon="4.342905446265059"><ele>121.0</ele><time>2026-04-03T11:16:51Z</time></trkpt><trkpt lat="44.03928993111149" lon="4.343225030093202"><ele>120.5</ele><time>2026-04-03T11:16:52Z</time></trkpt><trkpt lat="44.03925549302747" lon="4.343554384428467"><ele>120.0</ele><time>2026-04-03T11:16:53Z</time></trkpt><trkpt lat="44.0392384517045" lon="4.343889956381641"><ele>119.0</ele><time>2026-04-03T11:16:54Z</time></trkpt><trkpt lat="44.039201364734325" lon="4.344219933198957"><ele>118.0</ele><time>2026-04-03T11:16:55Z</time></trkpt><trkpt lat="44.03916309234768" lon="4.344542057277665"><ele>116.0</ele><time>2026-04-03T11:16:56Z</time></trkpt><trkpt lat="44.039128393287534" lon="4.344863175532167"><ele>114.0</ele><time>2026-04-03T11:16:57Z</time></trkpt><trkpt lat="44.039092950702255" lon="4.345186344932163"><ele>114.0</ele><time>2026-04-03T11:16:58Z</time></trkpt><trkpt lat="44.03906282707229" lon="4.345507194671578"><ele>114.0</ele><time>2026-04-03T11:16:59Z</time></trkpt><trkpt lat="44.03902556544556" lon="4.345827329098543"><ele>114.0</ele><time>2026-04-03T11:17:00Z</time></trkpt><trkpt lat="44.03898824049585" lon="4.34613841834669"><ele>114.0</ele><time>2026-04-03T11:17:01Z</time></trkpt><trkpt lat="44.03895299454156" lon="4.346446928167253"><ele>114.0</ele><time>2026-04-03T11:17:02Z</time></trkpt><trkpt lat="44.038919875600506" lon="4.346763979895422"><ele>114.0</ele><time>2026-04-03T11:17:03Z</time></trkpt><trkpt lat="44.03889365560996" lon="4.347069704682116"><ele>116.33333333333334</ele><time>2026-04-03T11:17:04Z</time></trkpt><trkpt lat="44.03886529203254" lon="4.3473571326973275"><ele>118.66666666666667</ele><time>2026-04-03T11:17:05Z</time></trkpt><trkpt lat="44.038848342102746" lon="4.347656781935574"><ele>121.0</ele><time>2026-04-03T11:17:06Z</time></trkpt><trkpt lat="44.03886905142871" lon="4.34796564881217"><ele>121.0</ele><time>2026-04-03T11:17:07Z</time></trkpt><trkpt lat="44.03892080208754" lon="4.348276454300944"><ele>121.0</ele><time>2026-04-03T11:17:08Z</time></trkpt><trkpt lat="44.03897743983834" lon="4.3485922934962495"><ele>120.5</ele><time>2026-04-03T11:17:09Z</time></trkpt><trkpt lat="44.03902192695525" lon="4.348910922023724"><ele>120.0</ele><time>2026-04-03T11:17:10Z</time></trkpt><trkpt lat="44.03905625735723" lon="4.349228809998529"><ele>120.0</ele><time>2026-04-03T11:17:11Z</time></trkpt><trkpt lat="44.03909807759222" lon="4.349545553933919"><ele>120.0</ele><time>2026-04-03T11:17:12Z</time></trkpt><trkpt lat="44.039151641087166" lon="4.349856972595359"><ele>121.0</ele><time>2026-04-03T11:17:13Z</time></trkpt><trkpt lat="44.03919593614961" lon="4.3501778285410175"><ele>122.0</ele><time>2026-04-03T11:17:14Z</time></trkpt><trkpt lat="44.039225681622945" lon="4.350500396972972"><ele>120.0</ele><time>2026-04-03T11:17:15Z</time></trkpt><trkpt lat="44.03925577187694" lon="4.350824461648396"><ele>118.0</ele><time>2026-04-03T11:17:16Z</time></trkpt><trkpt lat="44.03928963140798" lon="4.351144640119847"><ele>118.5</ele><time>2026-04-03T11:17:17Z</time></trkpt><trkpt lat="44.03928966734566" lon="4.351475755127636"><ele>119.0</ele><time>2026-04-03T11:17:18Z</time></trkpt><trkpt lat="44.03924273408345" lon="4.35179418661144"><ele>119.0</ele><time>2026-04-03T11:17:19Z</time></trkpt><trkpt lat="44.03919716838828" lon="4.352100304570862"><ele>119.0</ele><time>2026-04-03T11:17:20Z</time></trkpt><trkpt lat="44.03914971743268" lon="4.352405121191374"><ele>119.0</ele><time>2026-04-03T11:17:21Z</time></trkpt><trkpt lat="44.03911512668304" lon="4.352702047551987"><ele>119.0</ele><time>2026-04-03T11:17:22Z</time></trkpt><trkpt lat="44.03907120567484" lon="4.353004537001051"><ele>119.0</ele><time>2026-04-03T11:17:23Z</time></trkpt><trkpt lat="44.03905035998985" lon="4.3533331940126025"><ele>119.0</ele><time>2026-04-03T11:17:24Z</time></trkpt><trkpt lat="44.03903995210755" lon="4.353661220285396"><ele>119.0</ele><time>2026-04-03T11:17:25Z</time></trkpt><trkpt lat="44.03905940646035" lon="4.353991954908364"><ele>120.5</ele><time>2026-04-03T11:17:26Z</time></trkpt><trkpt lat="44.03910665192098" lon="4.35432368513986"><ele>122.0</ele><time>2026-04-03T11:17:27Z</time></trkpt><trkpt lat="44.039162270004724" lon="4.354655300147844"><ele>117.5</ele><time>2026-04-03T11:17:28Z</time></trkpt><trkpt lat="44.03920134202317" lon="4.354978016871426"><ele>113.0</ele><time>2026-04-03T11:17:29Z</time></trkpt><trkpt lat="44.0392404621225" lon="4.35530142690388"><ele>112.33333333333333</ele><time>2026-04-03T11:17:30Z</time></trkpt><trkpt lat="44.03930763360594" lon="4.3555732728256675"><ele>111.66666666666666</ele><time>2026-04-03T11:17:31Z</time></trkpt><trkpt lat="44.0393337057133" lon="4.35590605165431"><ele>111.0</ele><time>2026-04-03T11:17:32Z</time></trkpt><trkpt lat="44.039368313349726" lon="4.35622417353264"><ele>110.0</ele><time>2026-04-03T11:17:33Z</time></trkpt><trkpt lat="44.039394333355915" lon="4.356541177060207"><ele>109.0</ele><time>2026-04-03T11:17:34Z</time></trkpt><trkpt lat="44.03935554192836" lon="4.35685525722037"><ele>109.0</ele><time>2026-04-03T11:17:35Z</time></trkpt><trkpt lat="44.03929427042287" lon="4.357155052365045"><ele>109.0</ele><time>2026-04-03T11:17:36Z</time></trkpt><trkpt lat="44.0392013717089" lon="4.357443191033242"><ele>110.0</ele><time>2026-04-03T11:17:37Z</time></trkpt><trkpt lat="44.039073715995116" lon="4.357689619878706"><ele>111.0</ele><time>2026-04-03T11:17:38Z</time></trkpt><trkpt lat="44.03891150416176" lon="4.357910656998731"><ele>112.0</ele><time>2026-04-03T11:17:39Z</time></trkpt><trkpt lat="44.03871895203675" lon="4.358117176984731"><ele>113.0</ele><time>2026-04-03T11:17:40Z</time></trkpt><trkpt lat="44.038536186206215" lon="4.358299996611536"><ele>114.0</ele><time>2026-04-03T11:17:41Z</time></trkpt><trkpt lat="44.03837002912867" lon="4.358474905626083"><ele>115.0</ele><time>2026-04-03T11:17:42Z</time></trkpt><trkpt lat="44.03821083606354" lon="4.358633337384946"><ele>115.0</ele><time>2026-04-03T11:17:43Z</time></trkpt><trkpt lat="44.03805336642995" lon="4.358763222730817"><ele>115.0</ele><time>2026-04-03T11:17:44Z</time></trkpt><trkpt lat="44.03789559944885" lon="4.358851787458508"><ele>115.0</ele><time>2026-04-03T11:17:45Z</time></trkpt><trkpt lat="44.03773068114901" lon="4.3588422841802"><ele>115.0</ele><time>2026-04-03T11:17:46Z</time></trkpt><trkpt lat="44.03761358317331" lon="4.358922744225127"><ele>115.0</ele><time>2026-04-03T11:17:47Z</time></trkpt><trkpt lat="44.03750459020582" lon="4.359002752033809"><ele>115.0</ele><time>2026-04-03T11:17:48Z</time></trkpt><trkpt lat="44.037453853756475" lon="4.359199642014988"><ele>115.0</ele><time>2026-04-03T11:17:49Z</time></trkpt><trkpt lat="44.03740883226529" lon="4.359421161796178"><ele>115.0</ele><time>2026-04-03T11:17:50Z</time></trkpt><trkpt lat="44.0372867581866" lon="4.359611088387256"><ele>115.0</ele><time>2026-04-03T11:17:51Z</time></trkpt><trkpt lat="44.037111464944914" lon="4.359762112940356"><ele>115.0</ele><time>2026-04-03T11:17:52Z</time></trkpt><trkpt lat="44.03691742444525" lon="4.359914041510012"><ele>116.5</ele><time>2026-04-03T11:17:53Z</time></trkpt><trkpt lat="44.03671933169078" lon="4.360107839046797"><ele>118.0</ele><time>2026-04-03T11:17:54Z</time></trkpt><trkpt lat="44.036528737556644" lon="4.360314745817167"><ele>117.0</ele><time>2026-04-03T11:17:55Z</time></trkpt><trkpt lat="44.03634289542735" lon="4.360517859423641"><ele>116.0</ele><time>2026-04-03T11:17:56Z</time></trkpt><trkpt lat="44.036159511070174" lon="4.360703994019642"><ele>116.0</ele><time>2026-04-03T11:17:57Z</time></trkpt><trkpt lat="44.03598551246867" lon="4.360899126572728"><ele>116.0</ele><time>2026-04-03T11:17:58Z</time></trkpt><trkpt lat="44.03581169181316" lon="4.361105622902891"><ele>113.5</ele><time>2026-04-03T11:17:59Z</time></trkpt><trkpt lat="44.03564662465331" lon="4.361323318385733"><ele>111.0</ele><time>2026-04-03T11:18:00Z</time></trkpt><trkpt lat="44.03548971658677" lon="4.361550749622175"><ele>111.0</ele><time>2026-04-03T11:18:01Z</time></trkpt><trkpt lat="44.03535787883375" lon="4.3617971811194405"><ele>111.0</ele><time>2026-04-03T11:18:02Z</time></trkpt><trkpt lat="44.03523149141221" lon="4.362032290349216"><ele>111.0</ele><time>2026-04-03T11:18:03Z</time></trkpt><trkpt lat="44.035096217174925" lon="4.362248473123905"><ele>110.0</ele><time>2026-04-03T11:18:04Z</time></trkpt><trkpt lat="44.03500409083539" lon="4.362502437844705"><ele>109.0</ele><time>2026-04-03T11:18:05Z</time></trkpt><trkpt lat="44.03489317891954" lon="4.362715145995181"><ele>108.0</ele><time>2026-04-03T11:18:06Z</time></trkpt><trkpt lat="44.03478682349281" lon="4.362933087131092"><ele>108.66666666666666</ele><time>2026-04-03T11:18:07Z</time></trkpt><trkpt lat="44.03467602968066" lon="4.363179861564131"><ele>109.33333333333333</ele><time>2026-04-03T11:18:08Z</time></trkpt><trkpt lat="44.03457171049109" lon="4.363447777412075"><ele>110.0</ele><time>2026-04-03T11:18:09Z</time></trkpt><trkpt lat="44.03446558947124" lon="4.363753421599705"><ele>112.0</ele><time>2026-04-03T11:18:10Z</time></trkpt><trkpt lat="44.03434910429402" lon="4.364083543281584"><ele>114.0</ele><time>2026-04-03T11:18:11Z</time></trkpt><trkpt lat="44.03422009921007" lon="4.36440140784623"><ele>109.5</ele><time>2026-04-03T11:18:12Z</time></trkpt><trkpt lat="44.03409969019885" lon="4.364699528588108"><ele>105.0</ele><time>2026-04-03T11:18:13Z</time></trkpt><trkpt lat="44.03397425327143" lon="4.365024897776406"><ele>105.0</ele><time>2026-04-03T11:18:14Z</time></trkpt><trkpt lat="44.033837913884106" lon="4.365354249732877"><ele>105.0</ele><time>2026-04-03T11:18:15Z</time></trkpt><trkpt lat="44.033699271104794" lon="4.365658020206785"><ele>105.5</ele><time>2026-04-03T11:18:16Z</time></trkpt><trkpt lat="44.03357095620298" lon="4.365965570691149"><ele>106.0</ele><time>2026-04-03T11:18:17Z</time></trkpt><trkpt lat="44.03345681930317" lon="4.366290249128528"><ele>107.0</ele><time>2026-04-03T11:18:18Z</time></trkpt><trkpt lat="44.03333680032678" lon="4.366612562667002"><ele>108.0</ele><time>2026-04-03T11:18:19Z</time></trkpt><trkpt lat="44.0332083477462" lon="4.366928382316368"><ele>107.0</ele><time>2026-04-03T11:18:20Z</time></trkpt><trkpt lat="44.03308614678216" lon="4.367248788752405"><ele>106.0</ele><time>2026-04-03T11:18:21Z</time></trkpt><trkpt lat="44.032969343898564" lon="4.367567685019463"><ele>106.0</ele><time>2026-04-03T11:18:22Z</time></trkpt><trkpt lat="44.03284631037602" lon="4.36788169631174"><ele>106.0</ele><time>2026-04-03T11:18:23Z</time></trkpt><trkpt lat="44.03272005708509" lon="4.368187474301729"><ele>106.5</ele><time>2026-04-03T11:18:24Z</time></trkpt><trkpt lat="44.03260799025387" lon="4.36849251750264"><ele>107.0</ele><time>2026-04-03T11:18:25Z</time></trkpt><trkpt lat="44.03248906101157" lon="4.368797499333396"><ele>105.5</ele><time>2026-04-03T11:18:26Z</time></trkpt><trkpt lat="44.032371932215774" lon="4.369095879036065"><ele>104.0</ele><time>2026-04-03T11:18:27Z</time></trkpt><trkpt lat="44.03225838046327" lon="4.369387406812194"><ele>104.0</ele><time>2026-04-03T11:18:28Z</time></trkpt><trkpt lat="44.032145635378384" lon="4.369681419096806"><ele>104.0</ele><time>2026-04-03T11:18:29Z</time></trkpt><trkpt lat="44.032032706448106" lon="4.3699699702768875"><ele>105.5</ele><time>2026-04-03T11:18:30Z</time></trkpt><trkpt lat="44.03191922942889" lon="4.370264888798005"><ele>107.0</ele><time>2026-04-03T11:18:31Z</time></trkpt><trkpt lat="44.031801724902614" lon="4.370561517491211"><ele>107.0</ele><time>2026-04-03T11:18:32Z</time></trkpt><trkpt lat="44.031683907899534" lon="4.37085786464165"><ele>107.0</ele><time>2026-04-03T11:18:33Z</time></trkpt><trkpt lat="44.03156405385131" lon="4.371165678284729"><ele>105.5</ele><time>2026-04-03T11:18:34Z</time></trkpt><trkpt lat="44.03145238027246" lon="4.371469741247483"><ele>104.0</ele><time>2026-04-03T11:18:35Z</time></trkpt><trkpt lat="44.03132883970815" lon="4.371782083518453"><ele>104.0</ele><time>2026-04-03T11:18:36Z</time></trkpt><trkpt lat="44.03120744735638" lon="4.372079821448283"><ele>104.0</ele><time>2026-04-03T11:18:37Z</time></trkpt><trkpt lat="44.03108975210755" lon="4.372377923961177"><ele>103.5</ele><time>2026-04-03T11:18:38Z</time></trkpt><trkpt lat="44.030978179019726" lon="4.372669311518406"><ele>103.0</ele><time>2026-04-03T11:18:39Z</time></trkpt><trkpt lat="44.03086798797109" lon="4.37295488042532"><ele>104.5</ele><time>2026-04-03T11:18:40Z</time></trkpt><trkpt lat="44.03076089542413" lon="4.373230778890234"><ele>106.0</ele><time>2026-04-03T11:18:41Z</time></trkpt><trkpt lat="44.030652023006006" lon="4.373503293129476"><ele>106.0</ele><time>2026-04-03T11:18:42Z</time></trkpt><trkpt lat="44.0305474282883" lon="4.373776709308424"><ele>106.0</ele><time>2026-04-03T11:18:43Z</time></trkpt><trkpt lat="44.03044102575789" lon="4.374054623078763"><ele>106.0</ele><time>2026-04-03T11:18:44Z</time></trkpt><trkpt lat="44.030333762178486" lon="4.3743278227982385"><ele>106.0</ele><time>2026-04-03T11:18:45Z</time></trkpt><trkpt lat="44.0302326316215" lon="4.374606841258042"><ele>106.0</ele><time>2026-04-03T11:18:46Z</time></trkpt><trkpt lat="44.03013421735337" lon="4.374879212390951"><ele>106.0</ele><time>2026-04-03T11:18:47Z</time></trkpt><trkpt lat="44.030021016216295" lon="4.375138473166866"><ele>106.0</ele><time>2026-04-03T11:18:48Z</time></trkpt><trkpt lat="44.029919925351045" lon="4.375398898923741"><ele>106.0</ele><time>2026-04-03T11:18:49Z</time></trkpt><trkpt lat="44.02981881747642" lon="4.375663517305923"><ele>106.0</ele><time>2026-04-03T11:18:50Z</time></trkpt><trkpt lat="44.029715852670165" lon="4.3759238977712505"><ele>106.0</ele><time>2026-04-03T11:18:51Z</time></trkpt><trkpt lat="44.02961288439905" lon="4.376172782684765"><ele>106.0</ele><time>2026-04-03T11:18:52Z</time></trkpt><trkpt lat="44.02951606052049" lon="4.37642830845798"><ele>106.0</ele><time>2026-04-03T11:18:53Z</time></trkpt><trkpt lat="44.02941989458303" lon="4.376672112618124"><ele>106.0</ele><time>2026-04-03T11:18:54Z</time></trkpt><trkpt lat="44.02932632227905" lon="4.376919570176632"><ele>106.0</ele><time>2026-04-03T11:18:55Z</time></trkpt><trkpt lat="44.02922332253124" lon="4.377174213525475"><ele>106.0</ele><time>2026-04-03T11:18:56Z</time></trkpt><trkpt lat="44.029122455205936" lon="4.377419729174804"><ele>106.0</ele><time>2026-04-03T11:18:57Z</time></trkpt><trkpt lat="44.029027957191566" lon="4.377656464598614"><ele>106.0</ele><time>2026-04-03T11:18:58Z</time></trkpt><trkpt lat="44.028937393498026" lon="4.377884490389779"><ele>106.0</ele><time>2026-04-03T11:18:59Z</time></trkpt><trkpt lat="44.02885331032845" lon="4.378100576116521"><ele>107.0</ele><time>2026-04-03T11:19:00Z</time></trkpt><trkpt lat="44.028777274255035" lon="4.37830855534339"><ele>108.0</ele><time>2026-04-03T11:19:01Z</time></trkpt><trkpt lat="44.02870935501199" lon="4.378501855925329"><ele>109.0</ele><time>2026-04-03T11:19:02Z</time></trkpt><trkpt lat="44.02864064945525" lon="4.378683184934615"><ele>110.0</ele><time>2026-04-03T11:19:03Z</time></trkpt><trkpt lat="44.02857123020901" lon="4.378854239168458"><ele>111.0</ele><time>2026-04-03T11:19:04Z</time></trkpt><trkpt lat="44.02850452744404" lon="4.379017715177338"><ele>112.0</ele><time>2026-04-03T11:19:05Z</time></trkpt><trkpt lat="44.02843940538702" lon="4.379190158129864"><ele>113.0</ele><time>2026-04-03T11:19:06Z</time></trkpt><trkpt lat="44.028371428604885" lon="4.379365121645239"><ele>112.75</ele><time>2026-04-03T11:19:07Z</time></trkpt><trkpt lat="44.02829776733321" lon="4.379539115978238"><ele>112.5</ele><time>2026-04-03T11:19:08Z</time></trkpt><trkpt lat="44.02822014241336" lon="4.379727490001414"><ele>112.25</ele><time>2026-04-03T11:19:09Z</time></trkpt><trkpt lat="44.02814867329523" lon="4.3799074579245785"><ele>112.0</ele><time>2026-04-03T11:19:10Z</time></trkpt><trkpt lat="44.028082052083995" lon="4.380102915087873"><ele>112.0</ele><time>2026-04-03T11:19:11Z</time></trkpt><trkpt lat="44.02800873084015" lon="4.380289290580616"><ele>112.0</ele><time>2026-04-03T11:19:12Z</time></trkpt><trkpt lat="44.02793932622832" lon="4.3804787846742546"><ele>112.0</ele><time>2026-04-03T11:19:13Z</time></trkpt><trkpt lat="44.02786484540609" lon="4.380669122143912"><ele>112.0</ele><time>2026-04-03T11:19:14Z</time></trkpt><trkpt lat="44.02778627021792" lon="4.3808567688298234"><ele>112.0</ele><time>2026-04-03T11:19:15Z</time></trkpt><trkpt lat="44.027713836678046" lon="4.381036696835165"><ele>112.0</ele><time>2026-04-03T11:19:16Z</time></trkpt><trkpt lat="44.02764637676636" lon="4.381215896445415"><ele>112.0</ele><time>2026-04-03T11:19:17Z</time></trkpt><trkpt lat="44.02757213441902" lon="4.38139679136365"><ele>112.0</ele><time>2026-04-03T11:19:18Z</time></trkpt><trkpt lat="44.02750101094158" lon="4.381579831613479"><ele>112.0</ele><time>2026-04-03T11:19:19Z</time></trkpt><trkpt lat="44.02742913954111" lon="4.381761122580444"><ele>112.0</ele><time>2026-04-03T11:19:20Z</time></trkpt><trkpt lat="44.02736318889933" lon="4.381942493740206"><ele>111.0</ele><time>2026-04-03T11:19:21Z</time></trkpt><trkpt lat="44.02730010918547" lon="4.382125006101447"><ele>110.0</ele><time>2026-04-03T11:19:22Z</time></trkpt><trkpt lat="44.02721880194883" lon="4.382313236178489"><ele>109.0</ele><time>2026-04-03T11:19:23Z</time></trkpt><trkpt lat="44.02712209832622" lon="4.382496453984238"><ele>108.66666666666667</ele><time>2026-04-03T11:19:24Z</time></trkpt><trkpt lat="44.027061235026174" lon="4.38268738129883"><ele>108.33333333333334</ele><time>2026-04-03T11:19:25Z</time></trkpt><trkpt lat="44.02698782039489" lon="4.382887827911901"><ele>108.0</ele><time>2026-04-03T11:19:26Z</time></trkpt><trkpt lat="44.026911954420775" lon="4.383087302145346"><ele>108.66666666666666</ele><time>2026-04-03T11:19:27Z</time></trkpt><trkpt lat="44.02683306105626" lon="4.383291545659774"><ele>109.33333333333333</ele><time>2026-04-03T11:19:28Z</time></trkpt><trkpt lat="44.026757088904326" lon="4.383510574445973"><ele>110.0</ele><time>2026-04-03T11:19:29Z</time></trkpt><trkpt lat="44.026677743213206" lon="4.383714414954294"><ele>109.0</ele><time>2026-04-03T11:19:30Z</time></trkpt><trkpt lat="44.026595388066355" lon="4.3839372357521755"><ele>108.0</ele><time>2026-04-03T11:19:31Z</time></trkpt><trkpt lat="44.026511354934144" lon="4.384156677622502"><ele>107.0</ele><time>2026-04-03T11:19:32Z</time></trkpt><trkpt lat="44.02642594059836" lon="4.384369448828696"><ele>107.0</ele><time>2026-04-03T11:19:33Z</time></trkpt><trkpt lat="44.02634315655668" lon="4.384583409795676"><ele>107.0</ele><time>2026-04-03T11:19:34Z</time></trkpt><trkpt lat="44.02626089510907" lon="4.384786982819441"><ele>107.0</ele><time>2026-04-03T11:19:35Z</time></trkpt><trkpt lat="44.02617677055508" lon="4.384993717577393"><ele>107.33333333333333</ele><time>2026-04-03T11:19:36Z</time></trkpt><trkpt lat="44.02609214996191" lon="4.385203610444533"><ele>107.66666666666666</ele><time>2026-04-03T11:19:37Z</time></trkpt><trkpt lat="44.02601426859134" lon="4.385415628221074"><ele>108.0</ele><time>2026-04-03T11:19:38Z</time></trkpt><trkpt lat="44.02593209724645" lon="4.38562485373668"><ele>109.0</ele><time>2026-04-03T11:19:39Z</time></trkpt><trkpt lat="44.025847770702526" lon="4.385831362383575"><ele>110.0</ele><time>2026-04-03T11:19:40Z</time></trkpt><trkpt lat="44.025767809162176" lon="4.386041128419675"><ele>111.0</ele><time>2026-04-03T11:19:41Z</time></trkpt><trkpt lat="44.025689828464365" lon="4.38625671514344"><ele>111.66666666666666</ele><time>2026-04-03T11:19:42Z</time></trkpt><trkpt lat="44.02561200752885" lon="4.386470783639211"><ele>112.33333333333333</ele><time>2026-04-03T11:19:43Z</time></trkpt><trkpt lat="44.02552726868477" lon="4.386684308526987"><ele>113.0</ele><time>2026-04-03T11:19:44Z</time></trkpt><trkpt lat="44.02544359761952" lon="4.38689074636727"><ele>113.0</ele><time>2026-04-03T11:19:45Z</time></trkpt><trkpt lat="44.025360728470666" lon="4.3871002160599435"><ele>113.0</ele><time>2026-04-03T11:19:46Z</time></trkpt><trkpt lat="44.025297457648676" lon="4.387268551962705"><ele>113.0</ele><time>2026-04-03T11:19:47Z</time></trkpt><trkpt lat="44.02523358176404" lon="4.387412974971545"><ele>113.0</ele><time>2026-04-03T11:19:48Z</time></trkpt><trkpt lat="44.02518531138818" lon="4.387539684709349"><ele>113.2</ele><time>2026-04-03T11:19:49Z</time></trkpt><trkpt lat="44.02515161611031" lon="4.387675661473713"><ele>113.4</ele><time>2026-04-03T11:19:50Z</time></trkpt><trkpt lat="44.025092268289356" lon="4.387802365486228"><ele>113.60000000000001</ele><time>2026-04-03T11:19:51Z</time></trkpt><trkpt lat="44.02505515371823" lon="4.387925071167494"><ele>113.80000000000001</ele><time>2026-04-03T11:19:52Z</time></trkpt><trkpt lat="44.02501201112893" lon="4.388039431815869"><ele>114.0</ele><time>2026-04-03T11:19:53Z</time></trkpt><trkpt lat="44.024976650654985" lon="4.38813073117745"><ele>113.16666666666667</ele><time>2026-04-03T11:19:54Z</time></trkpt><trkpt lat="44.0249467570476" lon="4.38821445696337"><ele>112.33333333333334</ele><time>2026-04-03T11:19:55Z</time></trkpt><trkpt lat="44.024895434343456" lon="4.388345083896184"><ele>111.5</ele><time>2026-04-03T11:20:01Z</time></trkpt><trkpt lat="44.02484788994368" lon="4.3884176225945835"><ele>110.66666666666667</ele><time>2026-04-03T11:20:02Z</time></trkpt><trkpt lat="44.024773564171944" lon="4.388482686510119"><ele>109.83333333333334</ele><time>2026-04-03T11:20:03Z</time></trkpt><trkpt lat="44.02468293136501" lon="4.388481385742694"><ele>109.0</ele><time>2026-04-03T11:20:04Z</time></trkpt><trkpt lat="44.024619632417895" lon="4.38853100327261"><ele>109.00000000000001</ele><time>2026-04-03T11:20:05Z</time></trkpt><trkpt lat="44.024560714088636" lon="4.388574214663797"><ele>109.0</ele><time>2026-04-03T11:20:06Z</time></trkpt><trkpt lat="44.0245216200311" lon="4.388652114805142"><ele>109.0</ele><time>2026-04-03T11:20:07Z</time></trkpt><trkpt lat="44.02451418165603" lon="4.388769709337953"><ele>109.0</ele><time>2026-04-03T11:20:08Z</time></trkpt><trkpt lat="44.02454406179364" lon="4.388894855599429"><ele>109.00000000000001</ele><time>2026-04-03T11:20:09Z</time></trkpt><trkpt lat="44.024593833062916" lon="4.388981958838873"><ele>109.0</ele><time>2026-04-03T11:20:10Z</time></trkpt><trkpt lat="44.02463506254823" lon="4.389056208502249"><ele>109.4</ele><time>2026-04-03T11:20:11Z</time></trkpt><trkpt lat="44.024731326084684" lon="4.3890632391039155"><ele>109.80000000000001</ele><time>2026-04-03T11:20:12Z</time></trkpt><trkpt lat="44.02481631627369" lon="4.389060492192754"><ele>110.19999999999999</ele><time>2026-04-03T11:20:13Z</time></trkpt><trkpt lat="44.0248948897918" lon="4.389039378312555"><ele>110.6</ele><time>2026-04-03T11:20:14Z</time></trkpt><trkpt lat="44.02500185833002" lon="4.389024030778868"><ele>111.0</ele><time>2026-04-03T11:20:16Z</time></trkpt><trkpt lat="44.025104642534764" lon="4.389102523603745"><ele>111.16666666666667</ele><time>2026-04-03T11:20:18Z</time></trkpt><trkpt lat="44.025189723322235" lon="4.389193285862964"><ele>111.33333333333334</ele><time>2026-04-03T11:20:20Z</time></trkpt><trkpt lat="44.02526391745189" lon="4.389229522264816"><ele>111.5</ele><time>2026-04-03T11:20:22Z</time></trkpt><trkpt lat="44.025354704020614" lon="4.389187813755491"><ele>111.66666666666667</ele><time>2026-04-03T11:20:24Z</time></trkpt><trkpt lat="44.025385396833066" lon="4.389084770366161"><ele>111.83333333333334</ele><time>2026-04-03T11:20:25Z</time></trkpt><trkpt lat="44.02541195228643" lon="4.388978855202613"><ele>112.0</ele><time>2026-04-03T11:20:26Z</time></trkpt><trkpt lat="44.02528464979456" lon="4.388896264406656"><ele>112.0</ele><time>2026-04-03T11:20:29Z</time></trkpt><trkpt lat="44.025220988669176" lon="4.388954976558378"><ele>112.0</ele><time>2026-04-03T11:20:32Z</time></trkpt><trkpt lat="44.025173087616444" lon="4.388851933814162"><ele>112.0</ele><time>2026-04-03T11:21:56Z</time></trkpt><trkpt lat="44.025219518076554" lon="4.38891473145748"><ele>112.0</ele><time>2026-04-03T11:22:28Z</time></trkpt><trkpt lat="44.02520999142999" lon="4.389002955942592"><ele>112.0</ele><time>2026-04-03T11:24:21Z</time></trkpt><trkpt lat="44.02517102629844" lon="4.389098903212021"><ele>112.0</ele><time>2026-04-03T11:32:57Z</time></trkpt><trkpt lat="44.02518073723665" lon="4.389202732407744"><ele>112.0</ele><time>2026-04-03T11:33:02Z</time></trkpt><trkpt lat="44.025289783084304" lon="4.38927292699336"><ele>112.00000000000001</ele><time>2026-04-03T11:34:50Z</time></trkpt><trkpt lat="44.02539650393027" lon="4.389307645493503"><ele>112.0</ele><time>2026-04-03T11:34:52Z</time></trkpt><trkpt lat="44.02547137523204" lon="4.389339335495495"><ele>112.0</ele><time>2026-04-03T11:34:54Z</time></trkpt><trkpt lat="44.02553838743549" lon="4.389387943932594"><ele>112.0</ele><time>2026-04-03T11:34:57Z</time></trkpt><trkpt lat="44.02560146736532" lon="4.389438574659125"><ele>112.00000000000001</ele><time>2026-04-03T11:43:38Z</time></trkpt><trkpt lat="44.025617874019275" lon="4.389345367328055"><ele>112.0</ele><time>2026-04-03T11:43:40Z</time></trkpt><trkpt lat="44.02551349968821" lon="4.389304268063177"><ele>112.00000000000001</ele><time>2026-04-03T11:43:42Z</time></trkpt><trkpt lat="44.025442185133144" lon="4.389283116202919"><ele>112.0</ele><time>2026-04-03T11:43:43Z</time></trkpt><trkpt lat="44.025385124363666" lon="4.389234081862235"><ele>112.0</ele><time>2026-04-03T11:43:45Z</time></trkpt><trkpt lat="44.02528027805665" lon="4.389189073592646"><ele>112.0</ele><time>2026-04-03T11:43:47Z</time></trkpt><trkpt lat="44.02519543794752" lon="4.38914514240131"><ele>112.00000000000001</ele><time>2026-04-03T11:43:48Z</time></trkpt><trkpt lat="44.02512162858213" lon="4.389082009451794"><ele>112.0</ele><time>2026-04-03T11:43:49Z</time></trkpt><trkpt lat="44.02505212588077" lon="4.388992341477753"><ele>112.00000000000001</ele><time>2026-04-03T11:43:50Z</time></trkpt><trkpt lat="44.025006885068436" lon="4.388905615740832"><ele>112.0</ele><time>2026-04-03T11:43:51Z</time></trkpt><trkpt lat="44.0249743412989" lon="4.388813770716598"><ele>112.0</ele><time>2026-04-03T11:43:52Z</time></trkpt><trkpt lat="44.02493867975447" lon="4.388699926381266"><ele>112.0</ele><time>2026-04-03T11:43:53Z</time></trkpt><trkpt lat="44.0248948663576" lon="4.388577009167964"><ele>112.00000000000001</ele><time>2026-04-03T11:43:54Z</time></trkpt><trkpt lat="44.02481937506394" lon="4.38847921394919"><ele>112.0</ele><time>2026-04-03T11:43:55Z</time></trkpt><trkpt lat="44.024722204717925" lon="4.388443384390145"><ele>111.8</ele><time>2026-04-03T11:43:56Z</time></trkpt><trkpt lat="44.024629833002365" lon="4.388472679283273"><ele>111.6</ele><time>2026-04-03T11:43:57Z</time></trkpt><trkpt lat="44.02455225178769" lon="4.3885783477289255"><ele>111.39999999999999</ele><time>2026-04-03T11:43:58Z</time></trkpt><trkpt lat="44.02451537606647" lon="4.388726502683203"><ele>111.19999999999999</ele><time>2026-04-03T11:43:59Z</time></trkpt><trkpt lat="44.02450794601172" lon="4.388908921267159"><ele>111.0</ele><time>2026-04-03T11:44:00Z</time></trkpt><trkpt lat="44.02451999401477" lon="4.389113451781341"><ele>111.0</ele><time>2026-04-03T11:44:01Z</time></trkpt><trkpt lat="44.02450416319425" lon="4.389320127425176"><ele>111.0</ele><time>2026-04-03T11:44:02Z</time></trkpt><trkpt lat="44.024420721967914" lon="4.389543414327864"><ele>111.0</ele><time>2026-04-03T11:44:03Z</time></trkpt><trkpt lat="44.024335683329916" lon="4.3897587845658945"><ele>110.66666666666666</ele><time>2026-04-03T11:44:04Z</time></trkpt><trkpt lat="44.02423375081731" lon="4.390001454064655"><ele>110.33333333333333</ele><time>2026-04-03T11:44:05Z</time></trkpt><trkpt lat="44.024146411954504" lon="4.3902235624174"><ele>110.0</ele><time>2026-04-03T11:44:06Z</time></trkpt><trkpt lat="44.02406123642775" lon="4.390454901302909"><ele>111.33333333333333</ele><time>2026-04-03T11:44:07Z</time></trkpt><trkpt lat="44.023974042840095" lon="4.390688365832033"><ele>112.66666666666666</ele><time>2026-04-03T11:44:08Z</time></trkpt><trkpt lat="44.023877875594664" lon="4.390921392490353"><ele>114.0</ele><time>2026-04-03T11:44:09Z</time></trkpt><trkpt lat="44.0237911371197" lon="4.391150349132189"><ele>115.0</ele><time>2026-04-03T11:44:10Z</time></trkpt><trkpt lat="44.02370226074309" lon="4.391380131267963"><ele>116.0</ele><time>2026-04-03T11:44:11Z</time></trkpt><trkpt lat="44.02361554254072" lon="4.391611676578151"><ele>117.0</ele><time>2026-04-03T11:44:12Z</time></trkpt><trkpt lat="44.02352618591037" lon="4.391835854843356"><ele>117.0</ele><time>2026-04-03T11:44:13Z</time></trkpt><trkpt lat="44.023436708358645" lon="4.392061445038912"><ele>117.0</ele><time>2026-04-03T11:44:14Z</time></trkpt><trkpt lat="44.02333766099726" lon="4.39229575141574"><ele>117.0</ele><time>2026-04-03T11:44:15Z</time></trkpt><trkpt lat="44.02325269240028" lon="4.39251775260686"><ele>116.33333333333334</ele><time>2026-04-03T11:44:16Z</time></trkpt><trkpt lat="44.02316920364325" lon="4.392742939590026"><ele>115.66666666666667</ele><time>2026-04-03T11:44:17Z</time></trkpt><trkpt lat="44.023078345784434" lon="4.392961813413224"><ele>115.0</ele><time>2026-04-03T11:44:18Z</time></trkpt><trkpt lat="44.022990529835084" lon="4.393184696688904"><ele>115.0</ele><time>2026-04-03T11:44:19Z</time></trkpt><trkpt lat="44.02289974191375" lon="4.393416154524263"><ele>115.0</ele><time>2026-04-03T11:44:20Z</time></trkpt><trkpt lat="44.02280930011778" lon="4.393653760379097"><ele>115.0</ele><time>2026-04-03T11:44:21Z</time></trkpt><trkpt lat="44.022716606693585" lon="4.39389473803887"><ele>116.0</ele><time>2026-04-03T11:44:22Z</time></trkpt><trkpt lat="44.02262058943134" lon="4.394143826974356"><ele>117.0</ele><time>2026-04-03T11:44:23Z</time></trkpt><trkpt lat="44.02252197518242" lon="4.3943989286879965"><ele>118.0</ele><time>2026-04-03T11:44:24Z</time></trkpt><trkpt lat="44.02242465937583" lon="4.394657028994202"><ele>116.33333333333334</ele><time>2026-04-03T11:44:25Z</time></trkpt><trkpt lat="44.02232451765893" lon="4.39492307497686"><ele>114.66666666666666</ele><time>2026-04-03T11:44:26Z</time></trkpt><trkpt lat="44.02222309606272" lon="4.395182458103841"><ele>113.0</ele><time>2026-04-03T11:44:27Z</time></trkpt><trkpt lat="44.022114845703506" lon="4.3954480771548505"><ele>114.5</ele><time>2026-04-03T11:44:28Z</time></trkpt><trkpt lat="44.02200928919593" lon="4.3957220985709"><ele>116.0</ele><time>2026-04-03T11:44:29Z</time></trkpt><trkpt lat="44.0218998345849" lon="4.396003914629479"><ele>116.0</ele><time>2026-04-03T11:44:30Z</time></trkpt><trkpt lat="44.02179605636075" lon="4.39626587597039"><ele>116.0</ele><time>2026-04-03T11:44:31Z</time></trkpt><trkpt lat="44.02169828572213" lon="4.3965073644860215"><ele>116.0</ele><time>2026-04-03T11:44:32Z</time></trkpt><trkpt lat="44.0216051917493" lon="4.396749389424851"><ele>116.0</ele><time>2026-04-03T11:44:33Z</time></trkpt><trkpt lat="44.02151386232557" lon="4.396989981201803"><ele>116.0</ele><time>2026-04-03T11:44:34Z</time></trkpt><trkpt lat="44.0214206698374" lon="4.397227981668281"><ele>116.0</ele><time>2026-04-03T11:44:35Z</time></trkpt><trkpt lat="44.021327597917534" lon="4.397462390081764"><ele>116.0</ele><time>2026-04-03T11:44:36Z</time></trkpt><trkpt lat="44.02123302069516" lon="4.397701631432209"><ele>116.0</ele><time>2026-04-03T11:44:37Z</time></trkpt><trkpt lat="44.02113990976098" lon="4.39794357477727"><ele>116.0</ele><time>2026-04-03T11:44:38Z</time></trkpt><trkpt lat="44.021047997172786" lon="4.398190614973243"><ele>116.33333333333333</ele><time>2026-04-03T11:44:39Z</time></trkpt><trkpt lat="44.02095428681202" lon="4.39843792622739"><ele>116.66666666666666</ele><time>2026-04-03T11:44:40Z</time></trkpt><trkpt lat="44.02085451244258" lon="4.398687053606944"><ele>117.0</ele><time>2026-04-03T11:44:41Z</time></trkpt><trkpt lat="44.02075615785254" lon="4.398935516990339"><ele>116.0</ele><time>2026-04-03T11:44:42Z</time></trkpt><trkpt lat="44.0206619724761" lon="4.39917749633349"><ele>115.0</ele><time>2026-04-03T11:44:43Z</time></trkpt><trkpt lat="44.02057084887616" lon="4.399415610813511"><ele>114.0</ele><time>2026-04-03T11:44:44Z</time></trkpt><trkpt lat="44.020483734033725" lon="4.399643388223"><ele>114.66666666666666</ele><time>2026-04-03T11:44:45Z</time></trkpt><trkpt lat="44.020396458512835" lon="4.399871637872724"><ele>115.33333333333333</ele><time>2026-04-03T11:44:46Z</time></trkpt><trkpt lat="44.0203145921468" lon="4.400088921978502"><ele>116.0</ele><time>2026-04-03T11:44:47Z</time></trkpt><trkpt lat="44.0202409230072" lon="4.400280413666637"><ele>116.0</ele><time>2026-04-03T11:44:48Z</time></trkpt><trkpt lat="44.02016795834601" lon="4.400465097340308"><ele>116.0</ele><time>2026-04-03T11:44:49Z</time></trkpt><trkpt lat="44.020099401543334" lon="4.400635245134952"><ele>116.0</ele><time>2026-04-03T11:44:50Z</time></trkpt><trkpt lat="44.020032406269344" lon="4.400790762099881"><ele>116.0</ele><time>2026-04-03T11:44:51Z</time></trkpt><trkpt lat="44.01997563138729" lon="4.400946587280735"><ele>116.0</ele><time>2026-04-03T11:44:52Z</time></trkpt><trkpt lat="44.01992149048173" lon="4.401086031480072"><ele>116.0</ele><time>2026-04-03T11:44:53Z</time></trkpt><trkpt lat="44.01987166300331" lon="4.401215648202721"><ele>116.0</ele><time>2026-04-03T11:44:54Z</time></trkpt><trkpt lat="44.01982371906897" lon="4.401330124306908"><ele>116.0</ele><time>2026-04-03T11:44:55Z</time></trkpt><trkpt lat="44.019782793801795" lon="4.401431453932711"><ele>116.0</ele><time>2026-04-03T11:44:56Z</time></trkpt><trkpt lat="44.01973069072968" lon="4.4015210136802585"><ele>115.99999999999999</ele><time>2026-04-03T11:44:57Z</time></trkpt><trkpt lat="44.019672870306934" lon="4.401572901019288"><ele>116.0</ele><time>2026-04-03T11:44:58Z</time></trkpt><trkpt lat="44.01961189206918" lon="4.4016226098291975"><ele>116.0</ele><time>2026-04-03T11:44:59Z</time></trkpt><trkpt lat="44.01955241475709" lon="4.401683837418106"><ele>116.0</ele><time>2026-04-03T11:45:00Z</time></trkpt><trkpt lat="44.019518160869076" lon="4.401780617670977"><ele>115.99999999999999</ele><time>2026-04-03T11:45:01Z</time></trkpt><trkpt lat="44.019509858889045" lon="4.401907789407018"><ele>116.0</ele><time>2026-04-03T11:45:02Z</time></trkpt><trkpt lat="44.0195093531232" lon="4.402067625980482"><ele>116.0</ele><time>2026-04-03T11:45:03Z</time></trkpt><trkpt lat="44.019489755983656" lon="4.402250926076184"><ele>116.0</ele><time>2026-04-03T11:45:04Z</time></trkpt><trkpt lat="44.019430434683784" lon="4.402410618775374"><ele>116.0</ele><time>2026-04-03T11:45:05Z</time></trkpt><trkpt lat="44.019356230860886" lon="4.402560459634406"><ele>116.0</ele><time>2026-04-03T11:45:06Z</time></trkpt><trkpt lat="44.019274111237735" lon="4.402726995656321"><ele>116.0</ele><time>2026-04-03T11:45:07Z</time></trkpt><trkpt lat="44.019210566984036" lon="4.402902258274923"><ele>116.0</ele><time>2026-04-03T11:45:08Z</time></trkpt><trkpt lat="44.0191481670973" lon="4.403053762579595"><ele>116.0</ele><time>2026-04-03T11:45:09Z</time></trkpt><trkpt lat="44.01909288380552" lon="4.403190221523478"><ele>116.0</ele><time>2026-04-03T11:45:10Z</time></trkpt><trkpt lat="44.01904220020722" lon="4.403321584448797"><ele>116.25</ele><time>2026-04-03T11:45:11Z</time></trkpt><trkpt lat="44.018989571491865" lon="4.403461358220513"><ele>116.5</ele><time>2026-04-03T11:45:12Z</time></trkpt><trkpt lat="44.0189335318631" lon="4.403610473444069"><ele>116.75</ele><time>2026-04-03T11:45:13Z</time></trkpt><trkpt lat="44.01887454127839" lon="4.403760211201002"><ele>117.0</ele><time>2026-04-03T11:45:14Z</time></trkpt><trkpt lat="44.01881836885623" lon="4.403917222684981"><ele>118.25</ele><time>2026-04-03T11:45:15Z</time></trkpt><trkpt lat="44.01875982617313" lon="4.404074111038455"><ele>119.5</ele><time>2026-04-03T11:45:16Z</time></trkpt><trkpt lat="44.01870140631449" lon="4.404228272827796"><ele>120.75</ele><time>2026-04-03T11:45:17Z</time></trkpt><trkpt lat="44.01864136261851" lon="4.40437874209532"><ele>122.0</ele><time>2026-04-03T11:45:18Z</time></trkpt><trkpt lat="44.01858078626336" lon="4.404531185310915"><ele>122.0</ele><time>2026-04-03T11:45:19Z</time></trkpt><trkpt lat="44.01852111867687" lon="4.4046871695001375"><ele>122.0</ele><time>2026-04-03T11:45:20Z</time></trkpt><trkpt lat="44.01846396424647" lon="4.404856246741886"><ele>122.0</ele><time>2026-04-03T11:45:21Z</time></trkpt><trkpt lat="44.018400200217805" lon="4.404994174838682"><ele>122.0</ele><time>2026-04-03T11:45:22Z</time></trkpt><trkpt lat="44.018337370624664" lon="4.405142733085605"><ele>121.25</ele><time>2026-04-03T11:45:23Z</time></trkpt><trkpt lat="44.018274671251184" lon="4.405296884679916"><ele>120.5</ele><time>2026-04-03T11:45:24Z</time></trkpt><trkpt lat="44.018214067671366" lon="4.405455216272933"><ele>119.75</ele><time>2026-04-03T11:45:25Z</time></trkpt><trkpt lat="44.0181551695393" lon="4.405613113716455"><ele>119.0</ele><time>2026-04-03T11:45:26Z</time></trkpt><trkpt lat="44.01809656896697" lon="4.405767869053929"><ele>119.0</ele><time>2026-04-03T11:45:27Z</time></trkpt><trkpt lat="44.01803597017081" lon="4.405920974480535"><ele>119.0</ele><time>2026-04-03T11:45:28Z</time></trkpt><trkpt lat="44.01797050289913" lon="4.406080562338243"><ele>119.0</ele><time>2026-04-03T11:45:29Z</time></trkpt><trkpt lat="44.01790773584858" lon="4.406243132119116"><ele>119.0</ele><time>2026-04-03T11:45:30Z</time></trkpt><trkpt lat="44.017848523075436" lon="4.4064032802588216"><ele>120.75</ele><time>2026-04-03T11:45:31Z</time></trkpt><trkpt lat="44.017793593711616" lon="4.406554800934156"><ele>122.5</ele><time>2026-04-03T11:45:32Z</time></trkpt><trkpt lat="44.01774610514332" lon="4.40668665375"><ele>124.25</ele><time>2026-04-03T11:45:33Z</time></trkpt><trkpt lat="44.01769555028219" lon="4.406822799159314"><ele>126.0</ele><time>2026-04-03T11:45:34Z</time></trkpt><trkpt lat="44.01763021319996" lon="4.406995116593041"><ele>129.0</ele><time>2026-04-03T11:45:35Z</time></trkpt><trkpt lat="44.017558041534336" lon="4.407189899279862"><ele>132.0</ele><time>2026-04-03T11:45:36Z</time></trkpt><trkpt lat="44.01748584310432" lon="4.407383450227539"><ele>135.0</ele><time>2026-04-03T11:45:37Z</time></trkpt><trkpt lat="44.01741265032241" lon="4.407566349324157"><ele>135.0</ele><time>2026-04-03T11:45:38Z</time></trkpt><trkpt lat="44.01734369837042" lon="4.407741491886522"><ele>135.0</ele><time>2026-04-03T11:45:39Z</time></trkpt><trkpt lat="44.01727568321786" lon="4.407903686803778"><ele>135.0</ele><time>2026-04-03T11:45:40Z</time></trkpt><trkpt lat="44.01721255565039" lon="4.408060677433512"><ele>135.0</ele><time>2026-04-03T11:45:41Z</time></trkpt><trkpt lat="44.01715546134059" lon="4.408221709965589"><ele>135.5</ele><time>2026-04-03T11:45:42Z</time></trkpt><trkpt lat="44.01709858325485" lon="4.4083806201630145"><ele>136.0</ele><time>2026-04-03T11:45:43Z</time></trkpt><trkpt lat="44.017021025871685" lon="4.408535823758039"><ele>136.5</ele><time>2026-04-03T11:45:44Z</time></trkpt><trkpt lat="44.016974167071666" lon="4.408692123667401"><ele>137.0</ele><time>2026-04-03T11:45:45Z</time></trkpt><trkpt lat="44.01692133302891" lon="4.408828335377144"><ele>137.2</ele><time>2026-04-03T11:45:46Z</time></trkpt><trkpt lat="44.016872226388394" lon="4.408952227212715"><ele>137.39999999999998</ele><time>2026-04-03T11:45:47Z</time></trkpt><trkpt lat="44.01682530917278" lon="4.409068651705482"><ele>137.60000000000002</ele><time>2026-04-03T11:45:48Z</time></trkpt><trkpt lat="44.01677564819764" lon="4.409193849028832"><ele>137.8</ele><time>2026-04-03T11:45:49Z</time></trkpt><trkpt lat="44.016723341584715" lon="4.409331759858475"><ele>138.0</ele><time>2026-04-03T11:45:50Z</time></trkpt><trkpt lat="44.016667727361195" lon="4.409473071027334"><ele>138.0</ele><time>2026-04-03T11:45:51Z</time></trkpt><trkpt lat="44.01661001406015" lon="4.409610947214937"><ele>138.0</ele><time>2026-04-03T11:45:52Z</time></trkpt><trkpt lat="44.01656243395762" lon="4.409755262189917"><ele>138.0</ele><time>2026-04-03T11:45:53Z</time></trkpt><trkpt lat="44.01650905558307" lon="4.409895944725949"><ele>138.0</ele><time>2026-04-03T11:45:54Z</time></trkpt><trkpt lat="44.01644933641313" lon="4.410041429302719"><ele>138.5</ele><time>2026-04-03T11:45:55Z</time></trkpt><trkpt lat="44.01638512881136" lon="4.410172518889706"><ele>139.0</ele><time>2026-04-03T11:45:56Z</time></trkpt><trkpt lat="44.016329481380296" lon="4.410315474299935"><ele>139.5</ele><time>2026-04-03T11:45:57Z</time></trkpt><trkpt lat="44.01628793959021" lon="4.410466599894809"><ele>140.0</ele><time>2026-04-03T11:45:58Z</time></trkpt><trkpt lat="44.01623263476985" lon="4.410604898267469"><ele>140.6</ele><time>2026-04-03T11:45:59Z</time></trkpt><trkpt lat="44.016172728365106" lon="4.410729519135962"><ele>141.2</ele><time>2026-04-03T11:46:00Z</time></trkpt><trkpt lat="44.01612767162169" lon="4.410872294028388"><ele>141.8</ele><time>2026-04-03T11:46:01Z</time></trkpt><trkpt lat="44.01607580237717" lon="4.41099934621082"><ele>142.4</ele><time>2026-04-03T11:46:02Z</time></trkpt><trkpt lat="44.01602700196975" lon="4.411127425120454"><ele>143.0</ele><time>2026-04-03T11:46:03Z</time></trkpt><trkpt lat="44.01598586167609" lon="4.411240030881531"><ele>143.20000000000002</ele><time>2026-04-03T11:46:04Z</time></trkpt><trkpt lat="44.01594644046797" lon="4.411342762994184"><ele>143.4</ele><time>2026-04-03T11:46:05Z</time></trkpt><trkpt lat="44.01590331604277" lon="4.411448948655556"><ele>143.60000000000002</ele><time>2026-04-03T11:46:06Z</time></trkpt><trkpt lat="44.01585797873251" lon="4.411565301012793"><ele>143.8</ele><time>2026-04-03T11:46:07Z</time></trkpt><trkpt lat="44.0158098599467" lon="4.411682344635998"><ele>144.0</ele><time>2026-04-03T11:46:08Z</time></trkpt><trkpt lat="44.015772220630765" lon="4.411789870226688"><ele>143.33333333333334</ele><time>2026-04-03T11:46:09Z</time></trkpt><trkpt lat="44.0157318516371" lon="4.41188659805436"><ele>142.66666666666666</ele><time>2026-04-03T11:46:10Z</time></trkpt><trkpt lat="44.01569309412392" lon="4.411984402294822"><ele>142.0</ele><time>2026-04-03T11:46:11Z</time></trkpt><trkpt lat="44.0156546065467" lon="4.412096539346279"><ele>141.33333333333331</ele><time>2026-04-03T11:46:12Z</time></trkpt><trkpt lat="44.01560873116111" lon="4.412209342798083"><ele>140.66666666666666</ele><time>2026-04-03T11:46:13Z</time></trkpt><trkpt lat="44.01555960565808" lon="4.41233008028948"><ele>140.0</ele><time>2026-04-03T11:46:14Z</time></trkpt><trkpt lat="44.01551134205327" lon="4.412456007099242"><ele>140.0</ele><time>2026-04-03T11:46:15Z</time></trkpt><trkpt lat="44.01545780572378" lon="4.412578688897474"><ele>140.0</ele><time>2026-04-03T11:46:16Z</time></trkpt><trkpt lat="44.01541071857629" lon="4.412698765797511"><ele>140.0</ele><time>2026-04-03T11:46:17Z</time></trkpt><trkpt lat="44.015365083584456" lon="4.412806856799545"><ele>140.0</ele><time>2026-04-03T11:46:18Z</time></trkpt><trkpt lat="44.01532243807443" lon="4.4129120863434315"><ele>140.0</ele><time>2026-04-03T11:46:19Z</time></trkpt><trkpt lat="44.01528111510874" lon="4.413018448197911"><ele>139.83333333333331</ele><time>2026-04-03T11:46:20Z</time></trkpt><trkpt lat="44.01523919807083" lon="4.413119868060655"><ele>139.66666666666666</ele><time>2026-04-03T11:46:21Z</time></trkpt><trkpt lat="44.01519607473452" lon="4.413229415125877"><ele>139.5</ele><time>2026-04-03T11:46:22Z</time></trkpt><trkpt lat="44.01515283711557" lon="4.4133383317250265"><ele>139.33333333333334</ele><time>2026-04-03T11:46:23Z</time></trkpt><trkpt lat="44.01510931324261" lon="4.413452263289827"><ele>139.16666666666669</ele><time>2026-04-03T11:46:24Z</time></trkpt><trkpt lat="44.01506767258583" lon="4.413567464795994"><ele>139.0</ele><time>2026-04-03T11:46:25Z</time></trkpt><trkpt lat="44.01502214694108" lon="4.413685017332313"><ele>138.66666666666669</ele><time>2026-04-03T11:46:26Z</time></trkpt><trkpt lat="44.01497508818883" lon="4.413797851009098"><ele>138.33333333333334</ele><time>2026-04-03T11:46:27Z</time></trkpt><trkpt lat="44.01493308435739" lon="4.413900367839495"><ele>138.0</ele><time>2026-04-03T11:46:28Z</time></trkpt><trkpt lat="44.01489251845538" lon="4.413993639945895"><ele>137.66666666666666</ele><time>2026-04-03T11:46:29Z</time></trkpt><trkpt lat="44.01485594603074" lon="4.41408322276558"><ele>137.33333333333331</ele><time>2026-04-03T11:46:30Z</time></trkpt><trkpt lat="44.01482195453342" lon="4.414175330962725"><ele>137.0</ele><time>2026-04-03T11:46:31Z</time></trkpt><trkpt lat="44.014789477478" lon="4.414256273971467"><ele>137.0</ele><time>2026-04-03T11:46:32Z</time></trkpt><trkpt lat="44.01472370062734" lon="4.414411059212722"><ele>137.0</ele><time>2026-04-03T11:46:34Z</time></trkpt><trkpt lat="44.014678104292734" lon="4.4145010712775905"><ele>137.0</ele><time>2026-04-03T11:46:35Z</time></trkpt><trkpt lat="44.01461866939216" lon="4.414576301468335"><ele>137.0</ele><time>2026-04-03T11:46:36Z</time></trkpt><trkpt lat="44.01454356726475" lon="4.41463494731274"><ele>137.0</ele><time>2026-04-03T11:46:37Z</time></trkpt><trkpt lat="44.014451411694345" lon="4.414645117626631"><ele>137.0</ele><time>2026-04-03T11:46:38Z</time></trkpt><trkpt lat="44.01434655619299" lon="4.414589482436707"><ele>137.0</ele><time>2026-04-03T11:46:39Z</time></trkpt><trkpt lat="44.01422181720192" lon="4.4145666023621075"><ele>137.0</ele><time>2026-04-03T11:46:40Z</time></trkpt><trkpt lat="44.01411154962973" lon="4.414522976633332"><ele>137.0</ele><time>2026-04-03T11:46:41Z</time></trkpt><trkpt lat="44.014009601620245" lon="4.414490180598366"><ele>136.83333333333331</ele><time>2026-04-03T11:46:42Z</time></trkpt><trkpt lat="44.01391550913097" lon="4.414455108886013"><ele>136.66666666666666</ele><time>2026-04-03T11:46:43Z</time></trkpt><trkpt lat="44.01382719165528" lon="4.414430921157435"><ele>136.5</ele><time>2026-04-03T11:46:44Z</time></trkpt><trkpt lat="44.013743920156905" lon="4.414408860894183"><ele>136.33333333333334</ele><time>2026-04-03T11:46:45Z</time></trkpt><trkpt lat="44.0136777918559" lon="4.414392809638462"><ele>136.16666666666669</ele><time>2026-04-03T11:46:46Z</time></trkpt><trkpt lat="44.013611318583806" lon="4.41438267827503"><ele>136.0</ele><time>2026-04-03T11:46:47Z</time></trkpt><trkpt lat="44.013540620935046" lon="4.414374193804889"><ele>136.0</ele><time>2026-04-03T11:46:48Z</time></trkpt><trkpt lat="44.01346937627755" lon="4.414376397240104"><ele>136.0</ele><time>2026-04-03T11:46:49Z</time></trkpt><trkpt lat="44.0133971341419" lon="4.414383265668474"><ele>136.0</ele><time>2026-04-03T11:46:50Z</time></trkpt><trkpt lat="44.01331594779995" lon="4.414398744614892"><ele>136.0</ele><time>2026-04-03T11:46:51Z</time></trkpt><trkpt lat="44.01323121373635" lon="4.414424841089283"><ele>136.0</ele><time>2026-04-03T11:46:52Z</time></trkpt><trkpt lat="44.013156091662786" lon="4.414468488839494"><ele>136.0</ele><time>2026-04-03T11:46:53Z</time></trkpt><trkpt lat="44.01306616399797" lon="4.414510637899777"><ele>135.0</ele><time>2026-04-03T11:46:54Z</time></trkpt><trkpt lat="44.01298676783586" lon="4.414581961015547"><ele>134.0</ele><time>2026-04-03T11:46:55Z</time></trkpt><trkpt lat="44.012917179847335" lon="4.414673383374184"><ele>133.0</ele><time>2026-04-03T11:46:56Z</time></trkpt><trkpt lat="44.012859889750544" lon="4.414776484116582"><ele>132.0</ele><time>2026-04-03T11:46:57Z</time></trkpt><trkpt lat="44.012800824692256" lon="4.414862742914472"><ele>131.0</ele><time>2026-04-03T11:46:58Z</time></trkpt><trkpt lat="44.012730384121994" lon="4.414927553655815"><ele>131.0</ele><time>2026-04-03T11:46:59Z</time></trkpt><trkpt lat="44.0126774634439" lon="4.414990893346186"><ele>131.0</ele><time>2026-04-03T11:47:00Z</time></trkpt><trkpt lat="44.01262635154366" lon="4.415058047158281"><ele>131.0</ele><time>2026-04-03T11:47:01Z</time></trkpt><trkpt lat="44.0125496812795" lon="4.415105268535074"><ele>131.0</ele><time>2026-04-03T11:47:02Z</time></trkpt><trkpt lat="44.01246045019771" lon="4.415159682682823"><ele>131.0</ele><time>2026-04-03T11:47:03Z</time></trkpt><trkpt lat="44.012358549026764" lon="4.415215870500655"><ele>131.0</ele><time>2026-04-03T11:47:04Z</time></trkpt><trkpt lat="44.01226836729548" lon="4.415256556516147"><ele>130.83333333333331</ele><time>2026-04-03T11:47:05Z</time></trkpt><trkpt lat="44.01218368447656" lon="4.4152925334048465"><ele>130.66666666666666</ele><time>2026-04-03T11:47:06Z</time></trkpt><trkpt lat="44.01211233478255" lon="4.415307201141209"><ele>130.5</ele><time>2026-04-03T11:47:07Z</time></trkpt><trkpt lat="44.01204584946152" lon="4.415326144513402"><ele>130.33333333333334</ele><time>2026-04-03T11:47:08Z</time></trkpt><trkpt lat="44.01195337598565" lon="4.4153475523281305"><ele>130.16666666666669</ele><time>2026-04-03T11:47:10Z</time></trkpt><trkpt lat="44.011842411046224" lon="4.415330395102755"><ele>130.0</ele><time>2026-04-03T11:47:12Z</time></trkpt><trkpt lat="44.011728163843024" lon="4.415347453271678"><ele>129.2</ele><time>2026-04-03T11:47:14Z</time></trkpt><trkpt lat="44.0116477195429" lon="4.415351097738141"><ele>128.4</ele><time>2026-04-03T11:47:16Z</time></trkpt><trkpt lat="44.01150706411605" lon="4.415293967299843"><ele>127.6</ele><time>2026-04-03T11:47:19Z</time></trkpt><trkpt lat="44.01143000273275" lon="4.4152721257825585"><ele>126.8</ele><time>2026-04-03T11:47:20Z</time></trkpt><trkpt lat="44.011315904985004" lon="4.415274954052993"><ele>126.0</ele><time>2026-04-03T11:47:22Z</time></trkpt><trkpt lat="44.0112415649663" lon="4.415284295425959"><ele>126.0</ele><time>2026-04-03T11:47:24Z</time></trkpt><trkpt lat="44.01114758643599" lon="4.415287747365032"><ele>126.0</ele><time>2026-04-03T11:47:27Z</time></trkpt><trkpt lat="44.011058846900134" lon="4.415269036815399"><ele>126.0</ele><time>2026-04-03T11:47:29Z</time></trkpt><trkpt lat="44.010962303678944" lon="4.415290976094155"><ele>126.0</ele><time>2026-04-03T11:47:30Z</time></trkpt><trkpt lat="44.010888298586615" lon="4.41527956500825"><ele>126.0</ele><time>2026-04-03T11:47:31Z</time></trkpt><trkpt lat="44.01079836724012" lon="4.415273156441612"><ele>126.0</ele><time>2026-04-03T11:47:32Z</time></trkpt><trkpt lat="44.0107033520003" lon="4.4152655796226306"><ele>125.8</ele><time>2026-04-03T11:47:33Z</time></trkpt><trkpt lat="44.01061498490725" lon="4.415244382247995"><ele>125.6</ele><time>2026-04-03T11:47:34Z</time></trkpt><trkpt lat="44.01051011467994" lon="4.415207643477051"><ele>125.4</ele><time>2026-04-03T11:47:35Z</time></trkpt><trkpt lat="44.010417558504074" lon="4.415153102307767"><ele>125.2</ele><time>2026-04-03T11:47:36Z</time></trkpt><trkpt lat="44.01032855582055" lon="4.415099429061597"><ele>125.0</ele><time>2026-04-03T11:47:37Z</time></trkpt><trkpt lat="44.01025205291756" lon="4.4150479516137295"><ele>125.0</ele><time>2026-04-03T11:47:38Z</time></trkpt><trkpt lat="44.010180753820066" lon="4.414988693804666"><ele>125.0</ele><time>2026-04-03T11:47:39Z</time></trkpt><trkpt lat="44.01009274467207" lon="4.41487212656428"><ele>125.0</ele><time>2026-04-03T11:47:41Z</time></trkpt><trkpt lat="44.009960108770244" lon="4.4147882936627045"><ele>125.0</ele><time>2026-04-03T11:47:43Z</time></trkpt><trkpt lat="44.009881607140684" lon="4.414723306067603"><ele>125.0</ele><time>2026-04-03T11:47:44Z</time></trkpt><trkpt lat="44.0097928358996" lon="4.414667116472902"><ele>124.2</ele><time>2026-04-03T11:47:45Z</time></trkpt><trkpt lat="44.0097109441027" lon="4.414620053527083"><ele>123.4</ele><time>2026-04-03T11:47:46Z</time></trkpt><trkpt lat="44.009632330387184" lon="4.414569110476696"><ele>122.6</ele><time>2026-04-03T11:47:47Z</time></trkpt><trkpt lat="44.00953986498179" lon="4.414547062969378"><ele>121.8</ele><time>2026-04-03T11:47:48Z</time></trkpt><trkpt lat="44.009447452893056" lon="4.41453502131039"><ele>121.0</ele><time>2026-04-03T11:47:49Z</time></trkpt><trkpt lat="44.009351073950135" lon="4.4145430422707"><ele>121.0</ele><time>2026-04-03T11:47:50Z</time></trkpt><trkpt lat="44.0092432460624" lon="4.414546995687551"><ele>121.0</ele><time>2026-04-03T11:47:51Z</time></trkpt><trkpt lat="44.00913655948269" lon="4.414551159394956"><ele>121.0</ele><time>2026-04-03T11:47:52Z</time></trkpt><trkpt lat="44.00903394668861" lon="4.414550337094474"><ele>121.0</ele><time>2026-04-03T11:47:53Z</time></trkpt><trkpt lat="44.00893649287749" lon="4.414547396224807"><ele>121.0</ele><time>2026-04-03T11:47:54Z</time></trkpt><trkpt lat="44.008839084176834" lon="4.414555530754605"><ele>120.4</ele><time>2026-04-03T11:47:55Z</time></trkpt><trkpt lat="44.00874031138766" lon="4.4145514067461145"><ele>119.8</ele><time>2026-04-03T11:47:56Z</time></trkpt><trkpt lat="44.0086423398003" lon="4.414548091653609"><ele>119.20000000000002</ele><time>2026-04-03T11:47:57Z</time></trkpt><trkpt lat="44.008542770361" lon="4.414538219171025"><ele>118.60000000000001</ele><time>2026-04-03T11:47:58Z</time></trkpt><trkpt lat="44.00844900640712" lon="4.4145594879907915"><ele>118.0</ele><time>2026-04-03T11:47:59Z</time></trkpt><trkpt lat="44.0083475210739" lon="4.414554609435973"><ele>117.80000000000001</ele><time>2026-04-03T11:48:00Z</time></trkpt><trkpt lat="44.008257962167086" lon="4.41455328140647"><ele>117.60000000000001</ele><time>2026-04-03T11:48:01Z</time></trkpt><trkpt lat="44.00816611035557" lon="4.414567878784833"><ele>117.39999999999999</ele><time>2026-04-03T11:48:02Z</time></trkpt><trkpt lat="44.008081374486956" lon="4.414603292747759"><ele>117.19999999999999</ele><time>2026-04-03T11:48:03Z</time></trkpt><trkpt lat="44.00799882795434" lon="4.414662907771876"><ele>117.0</ele><time>2026-04-03T11:48:04Z</time></trkpt><trkpt lat="44.00792354615378" lon="4.41475130190395"><ele>117.0</ele><time>2026-04-03T11:48:05Z</time></trkpt><trkpt lat="44.00785540840191" lon="4.414851211478295"><ele>116.99999999999999</ele><time>2026-04-03T11:48:06Z</time></trkpt><trkpt lat="44.007791467487564" lon="4.414944719771147"><ele>116.99999999999999</ele><time>2026-04-03T11:48:07Z</time></trkpt><trkpt lat="44.007721589981536" lon="4.415022157635478"><ele>117.0</ele><time>2026-04-03T11:48:08Z</time></trkpt><trkpt lat="44.007663584725016" lon="4.415106070563104"><ele>117.0</ele><time>2026-04-03T11:48:09Z</time></trkpt><trkpt lat="44.007609558915185" lon="4.415215317530846"><ele>117.0</ele><time>2026-04-03T11:48:10Z</time></trkpt><trkpt lat="44.0075334108292" lon="4.41531617227111"><ele>116.99999999999999</ele><time>2026-04-03T11:48:11Z</time></trkpt><trkpt lat="44.00746101137001" lon="4.415412732179382"><ele>116.99999999999999</ele><time>2026-04-03T11:48:12Z</time></trkpt><trkpt lat="44.00739750501637" lon="4.415521221311393"><ele>117.0</ele><time>2026-04-03T11:48:13Z</time></trkpt><trkpt lat="44.00734752733099" lon="4.415645988085828"><ele>117.0</ele><time>2026-04-03T11:48:14Z</time></trkpt><trkpt lat="44.007318646876136" lon="4.415776377832064"><ele>117.0</ele><time>2026-04-03T11:48:15Z</time></trkpt><trkpt lat="44.00730265350338" lon="4.415898568137748"><ele>117.0</ele><time>2026-04-03T11:48:16Z</time></trkpt><trkpt lat="44.00727955995014" lon="4.416018167350592"><ele>117.0</ele><time>2026-04-03T11:48:17Z</time></trkpt><trkpt lat="44.00723976344674" lon="4.416124013146207"><ele>117.0</ele><time>2026-04-03T11:48:18Z</time></trkpt><trkpt lat="44.00723116310206" lon="4.416230315766479"><ele>117.0</ele><time>2026-04-03T11:48:19Z</time></trkpt><trkpt lat="44.00720936715006" lon="4.4163191179118995"><ele>117.0</ele><time>2026-04-03T11:48:20Z</time></trkpt><trkpt lat="44.00718725001212" lon="4.416413672896184"><ele>117.19999999999999</ele><time>2026-04-03T11:48:21Z</time></trkpt><trkpt lat="44.00716665210552" lon="4.416509271689815"><ele>117.39999999999999</ele><time>2026-04-03T11:48:22Z</time></trkpt><trkpt lat="44.007148441076076" lon="4.416597715876957"><ele>117.60000000000001</ele><time>2026-04-03T11:48:23Z</time></trkpt><trkpt lat="44.00710849764071" lon="4.416753201972608"><ele>117.80000000000001</ele><time>2026-04-03T11:48:25Z</time></trkpt><trkpt lat="44.00707049177273" lon="4.416869528209871"><ele>118.0</ele><time>2026-04-03T11:48:27Z</time></trkpt><trkpt lat="44.00698785336118" lon="4.41698080875312"><ele>118.0</ele><time>2026-04-03T11:48:29Z</time></trkpt><trkpt lat="44.00687029816194" lon="4.417047704778746"><ele>118.00000000000001</ele><time>2026-04-03T11:48:31Z</time></trkpt><trkpt lat="44.00680157966114" lon="4.417052231713267"><ele>118.00000000000001</ele><time>2026-04-03T11:48:32Z</time></trkpt><trkpt lat="44.00669507185303" lon="4.417006852646978"><ele>118.0</ele><time>2026-04-03T11:48:33Z</time></trkpt><trkpt lat="44.00658730686219" lon="4.416932377825747"><ele>118.0</ele><time>2026-04-03T11:48:34Z</time></trkpt><trkpt lat="44.006464434876925" lon="4.416883494410645"><ele>117.66666666666667</ele><time>2026-04-03T11:48:35Z</time></trkpt><trkpt lat="44.00632245160868" lon="4.416872725926869"><ele>117.33333333333334</ele><time>2026-04-03T11:48:36Z</time></trkpt><trkpt lat="44.00616901733812" lon="4.41685765315836"><ele>117.0</ele><time>2026-04-03T11:48:37Z</time></trkpt><trkpt lat="44.0060148753672" lon="4.41681976116469"><ele>117.0</ele><time>2026-04-03T11:48:38Z</time></trkpt><trkpt lat="44.00585794717461" lon="4.416756425331983"><ele>117.0</ele><time>2026-04-03T11:48:39Z</time></trkpt><trkpt lat="44.0056972324581" lon="4.416700927103198"><ele>117.0</ele><time>2026-04-03T11:48:40Z</time></trkpt><trkpt lat="44.00552806685296" lon="4.416663535284085"><ele>116.0</ele><time>2026-04-03T11:48:41Z</time></trkpt><trkpt lat="44.00536338095458" lon="4.416643805325406"><ele>115.0</ele><time>2026-04-03T11:48:42Z</time></trkpt><trkpt lat="44.005206268103535" lon="4.416622835752157"><ele>114.0</ele><time>2026-04-03T11:48:43Z</time></trkpt><trkpt lat="44.00505471820041" lon="4.416599677164842"><ele>113.33333333333334</ele><time>2026-04-03T11:48:44Z</time></trkpt><trkpt lat="44.00490081184012" lon="4.416570459356199"><ele>112.66666666666667</ele><time>2026-04-03T11:48:45Z</time></trkpt><trkpt lat="44.00474418057563" lon="4.4165347423270065"><ele>112.0</ele><time>2026-04-03T11:48:46Z</time></trkpt><trkpt lat="44.0045925968585" lon="4.416488101521715"><ele>112.0</ele><time>2026-04-03T11:48:47Z</time></trkpt><trkpt lat="44.00444808890031" lon="4.416435831045377"><ele>112.0</ele><time>2026-04-03T11:48:48Z</time></trkpt><trkpt lat="44.004310080419174" lon="4.416383680727717"><ele>112.0</ele><time>2026-04-03T11:48:49Z</time></trkpt><trkpt lat="44.00417804232227" lon="4.4163375509483975"><ele>112.0</ele><time>2026-04-03T11:48:50Z</time></trkpt><trkpt lat="44.00405011784321" lon="4.416294865662914"><ele>110.75</ele><time>2026-04-03T11:48:51Z</time></trkpt><trkpt lat="44.00392592395096" lon="4.416254671509787"><ele>109.5</ele><time>2026-04-03T11:48:52Z</time></trkpt><trkpt lat="44.00380604851506" lon="4.416219225574595"><ele>108.25</ele><time>2026-04-03T11:48:53Z</time></trkpt><trkpt lat="44.003689391102945" lon="4.416191072354407"><ele>107.0</ele><time>2026-04-03T11:48:54Z</time></trkpt><trkpt lat="44.003573663194906" lon="4.4161635469308855"><ele>107.0</ele><time>2026-04-03T11:48:55Z</time></trkpt><trkpt lat="44.00345378646064" lon="4.416135387678694"><ele>106.99999999999999</ele><time>2026-04-03T11:48:56Z</time></trkpt><trkpt lat="44.0033344611262" lon="4.416100787664713"><ele>106.99999999999999</ele><time>2026-04-03T11:48:57Z</time></trkpt><trkpt lat="44.003227242231475" lon="4.416065226775764"><ele>107.0</ele><time>2026-04-03T11:48:58Z</time></trkpt><trkpt lat="44.00314030445677" lon="4.4160291011129855"><ele>107.0</ele><time>2026-04-03T11:48:59Z</time></trkpt><trkpt lat="44.00304999097507" lon="4.415995881114477"><ele>106.39999999999999</ele><time>2026-04-03T11:49:01Z</time></trkpt><trkpt lat="44.002953999867465" lon="4.415902976097528"><ele>105.79999999999998</ele><time>2026-04-03T11:49:03Z</time></trkpt><trkpt lat="44.00288242170846" lon="4.415861922574202"><ele>105.2</ele><time>2026-04-03T11:49:04Z</time></trkpt><trkpt lat="44.002810460863785" lon="4.415883103045644"><ele>104.6</ele><time>2026-04-03T11:49:05Z</time></trkpt><trkpt lat="44.00273141783351" lon="4.415930834519521"><ele>104.0</ele><time>2026-04-03T11:49:06Z</time></trkpt><trkpt lat="44.00262042195083" lon="4.4159340380228365"><ele>103.0</ele><time>2026-04-03T11:49:07Z</time></trkpt><trkpt lat="44.002481868935966" lon="4.415864281178203"><ele>102.0</ele><time>2026-04-03T11:49:08Z</time></trkpt><trkpt lat="44.002307415731046" lon="4.4158156948383365"><ele>101.0</ele><time>2026-04-03T11:49:09Z</time></trkpt><trkpt lat="44.00213451726454" lon="4.415780116513607"><ele>101.0</ele><time>2026-04-03T11:49:10Z</time></trkpt><trkpt lat="44.00196926271614" lon="4.415727667873428"><ele>101.0</ele><time>2026-04-03T11:49:11Z</time></trkpt><trkpt lat="44.00182056642075" lon="4.415684962643007"><ele>101.0</ele><time>2026-04-03T11:49:12Z</time></trkpt><trkpt lat="44.00168596050795" lon="4.415635259161767"><ele>100.75</ele><time>2026-04-03T11:49:13Z</time></trkpt><trkpt lat="44.00156154275" lon="4.41558191128863"><ele>100.5</ele><time>2026-04-03T11:49:14Z</time></trkpt><trkpt lat="44.00144317186879" lon="4.415535649993552"><ele>100.25</ele><time>2026-04-03T11:49:15Z</time></trkpt><trkpt lat="44.00133695228092" lon="4.415492601379638"><ele>100.0</ele><time>2026-04-03T11:49:16Z</time></trkpt><trkpt lat="44.00123564823332" lon="4.4154508722795"><ele>100.0</ele><time>2026-04-03T11:49:17Z</time></trkpt><trkpt lat="44.001113602541196" lon="4.415404788540847"><ele>100.0</ele><time>2026-04-03T11:49:18Z</time></trkpt><trkpt lat="44.00098402535772" lon="4.415354575615881"><ele>100.0</ele><time>2026-04-03T11:49:19Z</time></trkpt><trkpt lat="44.0008560112285" lon="4.415299580483446"><ele>100.0</ele><time>2026-04-03T11:49:20Z</time></trkpt><trkpt lat="44.000724620990454" lon="4.415246150468401"><ele>99.25</ele><time>2026-04-03T11:49:21Z</time></trkpt><trkpt lat="44.00059575162002" lon="4.415196362046724"><ele>98.5</ele><time>2026-04-03T11:49:22Z</time></trkpt><trkpt lat="44.00047412338222" lon="4.415152597505708"><ele>97.75</ele><time>2026-04-03T11:49:23Z</time></trkpt><trkpt lat="44.00036273281664" lon="4.415107636641419"><ele>97.0</ele><time>2026-04-03T11:49:24Z</time></trkpt><trkpt lat="44.00025835095225" lon="4.415069808805194"><ele>97.0</ele><time>2026-04-03T11:49:25Z</time></trkpt><trkpt lat="44.000152658170975" lon="4.415031353034263"><ele>97.0</ele><time>2026-04-03T11:49:26Z</time></trkpt><trkpt lat="44.00004317740942" lon="4.4149672959077035"><ele>97.0</ele><time>2026-04-03T11:49:27Z</time></trkpt><trkpt lat="43.999924363293076" lon="4.4149417781829134"><ele>97.0</ele><time>2026-04-03T11:49:28Z</time></trkpt><trkpt lat="43.99981538405432" lon="4.414890651484869"><ele>97.0</ele><time>2026-04-03T11:49:29Z</time></trkpt><trkpt lat="43.99971009911086" lon="4.414847458197507"><ele>97.0</ele><time>2026-04-03T11:49:30Z</time></trkpt><trkpt lat="43.99960902415823" lon="4.414805646716113"><ele>97.0</ele><time>2026-04-03T11:49:31Z</time></trkpt><trkpt lat="43.999512700738784" lon="4.414764620428865"><ele>97.0</ele><time>2026-04-03T11:49:32Z</time></trkpt><trkpt lat="43.999419950156025" lon="4.414723513680071"><ele>97.0</ele><time>2026-04-03T11:49:33Z</time></trkpt><trkpt lat="43.99932950369459" lon="4.414689087308988"><ele>97.00000000000001</ele><time>2026-04-03T11:49:34Z</time></trkpt><trkpt lat="43.999245819147326" lon="4.414658618973785"><ele>97.0</ele><time>2026-04-03T11:49:35Z</time></trkpt><trkpt lat="43.999166461958204" lon="4.414628981395642"><ele>97.0</ele><time>2026-04-03T11:49:36Z</time></trkpt><trkpt lat="43.99909039863896" lon="4.4146066225565885"><ele>97.0</ele><time>2026-04-03T11:49:37Z</time></trkpt><trkpt lat="43.999014946277576" lon="4.414585431240114"><ele>97.00000000000001</ele><time>2026-04-03T11:49:38Z</time></trkpt><trkpt lat="43.998943212430135" lon="4.414562050667605"><ele>97.0</ele><time>2026-04-03T11:49:41Z</time></trkpt><trkpt lat="43.99884010564567" lon="4.414551031475062"><ele>96.39999999999999</ele><time>2026-04-03T11:49:43Z</time></trkpt><trkpt lat="43.99878069666862" lon="4.414582820472645"><ele>95.8</ele><time>2026-04-03T11:49:44Z</time></trkpt><trkpt lat="43.998711441020376" lon="4.4146386808193165"><ele>95.2</ele><time>2026-04-03T11:49:45Z</time></trkpt><trkpt lat="43.998686017654904" lon="4.414813269437241"><ele>94.6</ele><time>2026-04-03T11:49:46Z</time></trkpt><trkpt lat="43.99862578796359" lon="4.41495635406716"><ele>94.0</ele><time>2026-04-03T11:49:47Z</time></trkpt><trkpt lat="43.998500771295134" lon="4.415048804140584"><ele>94.0</ele><time>2026-04-03T11:49:48Z</time></trkpt><trkpt lat="43.998360018269445" lon="4.41516801376829"><ele>94.0</ele><time>2026-04-03T11:49:49Z</time></trkpt><trkpt lat="43.99820911344636" lon="4.415278477862599"><ele>94.0</ele><time>2026-04-03T11:49:50Z</time></trkpt><trkpt lat="43.998061451518545" lon="4.415413549208444"><ele>92.66666666666666</ele><time>2026-04-03T11:49:51Z</time></trkpt><trkpt lat="43.997911282227655" lon="4.415550375377493"><ele>91.33333333333333</ele><time>2026-04-03T11:49:52Z</time></trkpt><trkpt lat="43.997753503150314" lon="4.415676284707258"><ele>90.0</ele><time>2026-04-03T11:49:53Z</time></trkpt><trkpt lat="43.99759203957105" lon="4.415808811246191"><ele>89.66666666666667</ele><time>2026-04-03T11:49:54Z</time></trkpt><trkpt lat="43.997433571383795" lon="4.415953043048231"><ele>89.33333333333334</ele><time>2026-04-03T11:49:55Z</time></trkpt><trkpt lat="43.99727890270664" lon="4.416104142891567"><ele>89.0</ele><time>2026-04-03T11:49:56Z</time></trkpt><trkpt lat="43.99711819190405" lon="4.41625751233731"><ele>88.66666666666667</ele><time>2026-04-03T11:49:57Z</time></trkpt><trkpt lat="43.99695505945357" lon="4.416409334226432"><ele>88.33333333333333</ele><time>2026-04-03T11:49:58Z</time></trkpt><trkpt lat="43.996792238017164" lon="4.41656230176476"><ele>88.0</ele><time>2026-04-03T11:49:59Z</time></trkpt><trkpt lat="43.99664247158925" lon="4.4166870181799815"><ele>87.66666666666666</ele><time>2026-04-03T11:50:00Z</time></trkpt><trkpt lat="43.99648849058163" lon="4.4168344066963545"><ele>87.33333333333333</ele><time>2026-04-03T11:50:01Z</time></trkpt><trkpt lat="43.99633464993216" lon="4.416987397398873"><ele>87.0</ele><time>2026-04-03T11:50:02Z</time></trkpt><trkpt lat="43.99618373666063" lon="4.4171371738538685"><ele>87.0</ele><time>2026-04-03T11:50:03Z</time></trkpt><trkpt lat="43.99603495885704" lon="4.417291195181564"><ele>87.0</ele><time>2026-04-03T11:50:04Z</time></trkpt><trkpt lat="43.99588241240858" lon="4.41743820616288"><ele>87.0</ele><time>2026-04-03T11:50:05Z</time></trkpt><trkpt lat="43.99572892466454" lon="4.417580926118181"><ele>85.66666666666667</ele><time>2026-04-03T11:50:06Z</time></trkpt><trkpt lat="43.99557552786608" lon="4.417725177179903"><ele>84.33333333333334</ele><time>2026-04-03T11:50:07Z</time></trkpt><trkpt lat="43.995421883310904" lon="4.417872717830975"><ele>83.0</ele><time>2026-04-03T11:50:08Z</time></trkpt><trkpt lat="43.995270195518785" lon="4.418024024444379"><ele>83.0</ele><time>2026-04-03T11:50:09Z</time></trkpt><trkpt lat="43.995126252008816" lon="4.418173398376781"><ele>83.0</ele><time>2026-04-03T11:50:10Z</time></trkpt><trkpt lat="43.99498892182747" lon="4.418313026690689"><ele>83.0</ele><time>2026-04-03T11:50:11Z</time></trkpt><trkpt lat="43.99485595287086" lon="4.418448179163876"><ele>82.33333333333334</ele><time>2026-04-03T11:50:12Z</time></trkpt><trkpt lat="43.99473089537568" lon="4.418582538661559"><ele>81.66666666666667</ele><time>2026-04-03T11:50:13Z</time></trkpt><trkpt lat="43.99460391730822" lon="4.418705928151457"><ele>81.0</ele><time>2026-04-03T11:50:14Z</time></trkpt><trkpt lat="43.994477027715874" lon="4.418822149613456"><ele>80.0</ele><time>2026-04-03T11:50:15Z</time></trkpt><trkpt lat="43.9943400969884" lon="4.4189041238011555"><ele>79.0</ele><time>2026-04-03T11:50:16Z</time></trkpt><trkpt lat="43.99419779148635" lon="4.418975963168293"><ele>78.0</ele><time>2026-04-03T11:50:17Z</time></trkpt><trkpt lat="43.99402687833929" lon="4.41903814377149"><ele>77.0</ele><time>2026-04-03T11:50:18Z</time></trkpt><trkpt lat="43.9938300129249" lon="4.419102523782874"><ele>76.0</ele><time>2026-04-03T11:50:19Z</time></trkpt><trkpt lat="43.99365717591509" lon="4.41917326404512"><ele>75.0</ele><time>2026-04-03T11:50:20Z</time></trkpt><trkpt lat="43.993489679392184" lon="4.41922161228742"><ele>75.0</ele><time>2026-04-03T11:50:21Z</time></trkpt><trkpt lat="43.99334485834489" lon="4.419309521504164"><ele>75.0</ele><time>2026-04-03T11:50:22Z</time></trkpt><trkpt lat="43.99321703942945" lon="4.419419413538668"><ele>75.0</ele><time>2026-04-03T11:50:23Z</time></trkpt><trkpt lat="43.99309356353462" lon="4.419569845999706"><ele>72.0</ele><time>2026-04-03T11:50:24Z</time></trkpt><trkpt lat="43.992983144176115" lon="4.41977226920927"><ele>69.0</ele><time>2026-04-03T11:50:25Z</time></trkpt><trkpt lat="43.99289064630868" lon="4.419982106050171"><ele>66.0</ele><time>2026-04-03T11:50:26Z</time></trkpt><trkpt lat="43.99281942533876" lon="4.42018502866958"><ele>66.0</ele><time>2026-04-03T11:50:27Z</time></trkpt><trkpt lat="43.992754609838634" lon="4.420370767403558"><ele>66.0</ele><time>2026-04-03T11:50:28Z</time></trkpt><trkpt lat="43.99269993571014" lon="4.420532930654951"><ele>66.0</ele><time>2026-04-03T11:50:29Z</time></trkpt><trkpt lat="43.99275977016722" lon="4.420716030970413"><ele>66.0</ele><time>2026-04-03T11:50:30Z</time></trkpt><trkpt lat="43.992788695088414" lon="4.4209211502548404"><ele>65.66666666666667</ele><time>2026-04-03T11:50:31Z</time></trkpt><trkpt lat="43.992820107909445" lon="4.421160091322279"><ele>65.33333333333334</ele><time>2026-04-03T11:50:32Z</time></trkpt><trkpt lat="43.992843017361004" lon="4.421420926877597"><ele>65.0</ele><time>2026-04-03T11:50:33Z</time></trkpt><trkpt lat="43.992862573557744" lon="4.421675904537155"><ele>64.33333333333334</ele><time>2026-04-03T11:50:34Z</time></trkpt><trkpt lat="43.992876420732955" lon="4.421908504418439"><ele>63.66666666666667</ele><time>2026-04-03T11:50:35Z</time></trkpt><trkpt lat="43.99288331623398" lon="4.422144328598447"><ele>63.0</ele><time>2026-04-03T11:50:36Z</time></trkpt><trkpt lat="43.99288310827249" lon="4.422380818914793"><ele>63.0</ele><time>2026-04-03T11:50:37Z</time></trkpt><trkpt lat="43.992877856581615" lon="4.422617627254672"><ele>63.0</ele><time>2026-04-03T11:50:38Z</time></trkpt><trkpt lat="43.992874575924176" lon="4.422847844056922"><ele>63.0</ele><time>2026-04-03T11:50:39Z</time></trkpt><trkpt lat="43.992870616185925" lon="4.423065312696661"><ele>63.0</ele><time>2026-04-03T11:50:40Z</time></trkpt><trkpt lat="43.99284948784751" lon="4.423274758291544"><ele>63.0</ele><time>2026-04-03T11:50:41Z</time></trkpt><trkpt lat="43.99284402937756" lon="4.423467050996415"><ele>63.0</ele><time>2026-04-03T11:50:42Z</time></trkpt><trkpt lat="43.99284745872575" lon="4.4236505179199215"><ele>63.0</ele><time>2026-04-03T11:50:43Z</time></trkpt><trkpt lat="43.99283656635206" lon="4.42383564015411"><ele>63.66666666666667</ele><time>2026-04-03T11:50:44Z</time></trkpt><trkpt lat="43.992831454675766" lon="4.424043602101234"><ele>64.33333333333334</ele><time>2026-04-03T11:50:45Z</time></trkpt><trkpt lat="43.99282708325869" lon="4.424259757443796"><ele>65.0</ele><time>2026-04-03T11:50:46Z</time></trkpt><trkpt lat="43.992818283793646" lon="4.42447786493553"><ele>65.0</ele><time>2026-04-03T11:50:47Z</time></trkpt><trkpt lat="43.99278419211249" lon="4.424683699510057"><ele>65.0</ele><time>2026-04-03T11:50:48Z</time></trkpt><trkpt lat="43.992783267705164" lon="4.424877333335084"><ele>65.0</ele><time>2026-04-03T11:50:49Z</time></trkpt><trkpt lat="43.99275931997199" lon="4.42504689887285"><ele>65.0</ele><time>2026-04-03T11:50:50Z</time></trkpt><trkpt lat="43.99272560557508" lon="4.425204416506073"><ele>65.0</ele><time>2026-04-03T11:50:51Z</time></trkpt><trkpt lat="43.99268976612767" lon="4.425347160609106"><ele>65.0</ele><time>2026-04-03T11:50:52Z</time></trkpt><trkpt lat="43.992656055488524" lon="4.425489100049013"><ele>65.0</ele><time>2026-04-03T11:50:53Z</time></trkpt><trkpt lat="43.992624710517816" lon="4.425644551127137"><ele>65.0</ele><time>2026-04-03T11:50:54Z</time></trkpt><trkpt lat="43.99259528034279" lon="4.425818910166776"><ele>64.66666666666667</ele><time>2026-04-03T11:50:55Z</time></trkpt><trkpt lat="43.99254292340245" lon="4.426020990524739"><ele>64.33333333333333</ele><time>2026-04-03T11:50:56Z</time></trkpt><trkpt lat="43.992485985207495" lon="4.426247102916504"><ele>64.0</ele><time>2026-04-03T11:50:57Z</time></trkpt><trkpt lat="43.99242564255504" lon="4.42649141991477"><ele>63.33333333333333</ele><time>2026-04-03T11:50:58Z</time></trkpt><trkpt lat="43.99237256414252" lon="4.426768197931618"><ele>62.66666666666667</ele><time>2026-04-03T11:50:59Z</time></trkpt><trkpt lat="43.99230001028486" lon="4.427000292980758"><ele>62.0</ele><time>2026-04-03T11:51:00Z</time></trkpt><trkpt lat="43.99223004609045" lon="4.427225683329616"><ele>62.0</ele><time>2026-04-03T11:51:01Z</time></trkpt><trkpt lat="43.99216465548452" lon="4.4274647718786415"><ele>62.0</ele><time>2026-04-03T11:51:02Z</time></trkpt><trkpt lat="43.99210409753014" lon="4.427709956736703"><ele>62.0</ele><time>2026-04-03T11:51:03Z</time></trkpt><trkpt lat="43.99203857463044" lon="4.427955319025557"><ele>62.0</ele><time>2026-04-03T11:51:04Z</time></trkpt><trkpt lat="43.99197421027641" lon="4.428183907874912"><ele>62.0</ele><time>2026-04-03T11:51:05Z</time></trkpt><trkpt lat="43.99190848360061" lon="4.428413391150164"><ele>62.0</ele><time>2026-04-03T11:51:06Z</time></trkpt><trkpt lat="43.99185252727469" lon="4.428631632220382"><ele>62.0</ele><time>2026-04-03T11:51:07Z</time></trkpt><trkpt lat="43.99178829463055" lon="4.428803591744668"><ele>62.0</ele><time>2026-04-03T11:51:08Z</time></trkpt><trkpt lat="43.9917051203895" lon="4.428929927041929"><ele>62.0</ele><time>2026-04-03T11:51:09Z</time></trkpt><trkpt lat="43.991605675111636" lon="4.429010261360175"><ele>62.0</ele><time>2026-04-03T11:51:10Z</time></trkpt><trkpt lat="43.99150991183448" lon="4.429073189256704"><ele>62.5</ele><time>2026-04-03T11:51:11Z</time></trkpt><trkpt lat="43.99143779605586" lon="4.429167548604543"><ele>63.0</ele><time>2026-04-03T11:51:12Z</time></trkpt><trkpt lat="43.99140764569403" lon="4.429304859127918"><ele>63.5</ele><time>2026-04-03T11:51:13Z</time></trkpt><trkpt lat="43.99150908188117" lon="4.429486328451197"><ele>64.0</ele><time>2026-04-03T11:51:14Z</time></trkpt><trkpt lat="43.991585729232156" lon="4.4296484099963696"><ele>64.0</ele><time>2026-04-03T11:51:15Z</time></trkpt><trkpt lat="43.99159526215867" lon="4.429841951653209"><ele>64.0</ele><time>2026-04-03T11:51:16Z</time></trkpt><trkpt lat="43.991533980804476" lon="4.430054375476969"><ele>64.0</ele><time>2026-04-03T11:51:17Z</time></trkpt><trkpt lat="43.99148871741053" lon="4.430294703683543"><ele>64.0</ele><time>2026-04-03T11:51:18Z</time></trkpt><trkpt lat="43.99142671054307" lon="4.430522823613009"><ele>64.0</ele><time>2026-04-03T11:51:19Z</time></trkpt><trkpt lat="43.9913722968994" lon="4.430779557119241"><ele>64.0</ele><time>2026-04-03T11:51:20Z</time></trkpt><trkpt lat="43.99129122236757" lon="4.431069353814249"><ele>64.5</ele><time>2026-04-03T11:51:21Z</time></trkpt><trkpt lat="43.9912266002461" lon="4.431384372939705"><ele>65.0</ele><time>2026-04-03T11:51:22Z</time></trkpt><trkpt lat="43.99115382795941" lon="4.431687881537977"><ele>65.0</ele><time>2026-04-03T11:51:23Z</time></trkpt><trkpt lat="43.9910906691887" lon="4.4319842261607985"><ele>65.0</ele><time>2026-04-03T11:51:24Z</time></trkpt><trkpt lat="43.99104168933505" lon="4.432257371646579"><ele>65.0</ele><time>2026-04-03T11:51:25Z</time></trkpt><trkpt lat="43.99099752235761" lon="4.432516540831108"><ele>65.33333333333334</ele><time>2026-04-03T11:51:26Z</time></trkpt><trkpt lat="43.99095303917852" lon="4.432779840047044"><ele>65.66666666666667</ele><time>2026-04-03T11:51:27Z</time></trkpt><trkpt lat="43.99090556957188" lon="4.433062802151939"><ele>66.0</ele><time>2026-04-03T11:51:28Z</time></trkpt><trkpt lat="43.990848896624875" lon="4.433362197936453"><ele>65.0</ele><time>2026-04-03T11:51:29Z</time></trkpt><trkpt lat="43.99078149521382" lon="4.4336660746709216"><ele>64.0</ele><time>2026-04-03T11:51:30Z</time></trkpt><trkpt lat="43.99070138489335" lon="4.433968244304193"><ele>64.0</ele><time>2026-04-03T11:51:31Z</time></trkpt><trkpt lat="43.99062144842172" lon="4.4342644901476485"><ele>64.0</ele><time>2026-04-03T11:51:32Z</time></trkpt><trkpt lat="43.990549140258146" lon="4.43456576986885"><ele>64.5</ele><time>2026-04-03T11:51:33Z</time></trkpt><trkpt lat="43.99048469426314" lon="4.4348679157858495"><ele>65.0</ele><time>2026-04-03T11:51:34Z</time></trkpt><trkpt lat="43.99042014454946" lon="4.435169148354538"><ele>66.0</ele><time>2026-04-03T11:51:35Z</time></trkpt><trkpt lat="43.99034540532528" lon="4.435488892026602"><ele>67.0</ele><time>2026-04-03T11:51:36Z</time></trkpt><trkpt lat="43.990268126697785" lon="4.435804858685155"><ele>67.0</ele><time>2026-04-03T11:51:37Z</time></trkpt><trkpt lat="43.99019577138904" lon="4.436121237214152"><ele>67.0</ele><time>2026-04-03T11:51:38Z</time></trkpt><trkpt lat="43.99012306760557" lon="4.4364367946506755"><ele>67.5</ele><time>2026-04-03T11:51:39Z</time></trkpt><trkpt lat="43.99004950851208" lon="4.436756119412972"><ele>68.0</ele><time>2026-04-03T11:51:40Z</time></trkpt><trkpt lat="43.989976438277324" lon="4.437082498865661"><ele>67.0</ele><time>2026-04-03T11:51:41Z</time></trkpt><trkpt lat="43.989904553662406" lon="4.437409219382221"><ele>66.0</ele><time>2026-04-03T11:51:42Z</time></trkpt><trkpt lat="43.989828138734666" lon="4.437741192602115"><ele>66.0</ele><time>2026-04-03T11:51:43Z</time></trkpt><trkpt lat="43.98974680167699" lon="4.438069369177369"><ele>66.0</ele><time>2026-04-03T11:51:44Z</time></trkpt><trkpt lat="43.98966459855507" lon="4.438397635138118"><ele>66.0</ele><time>2026-04-03T11:51:45Z</time></trkpt><trkpt lat="43.98958922352709" lon="4.43871883818848"><ele>66.0</ele><time>2026-04-03T11:51:46Z</time></trkpt><trkpt lat="43.9895141394527" lon="4.439045916206492"><ele>66.5</ele><time>2026-04-03T11:51:47Z</time></trkpt><trkpt lat="43.98943945539043" lon="4.439368062738804"><ele>67.0</ele><time>2026-04-03T11:51:48Z</time></trkpt><trkpt lat="43.98936322055581" lon="4.439688224463945"><ele>67.0</ele><time>2026-04-03T11:51:49Z</time></trkpt><trkpt lat="43.98928630091568" lon="4.440014256769259"><ele>67.0</ele><time>2026-04-03T11:51:50Z</time></trkpt><trkpt lat="43.989205901459805" lon="4.440356627441586"><ele>66.0</ele><time>2026-04-03T11:51:51Z</time></trkpt><trkpt lat="43.98912537392246" lon="4.440707394607768"><ele>65.0</ele><time>2026-04-03T11:51:52Z</time></trkpt><trkpt lat="43.98904583739128" lon="4.441063341722389"><ele>64.5</ele><time>2026-04-03T11:51:53Z</time></trkpt><trkpt lat="43.98896234745701" lon="4.4414052275015665"><ele>64.0</ele><time>2026-04-03T11:51:54Z</time></trkpt><trkpt lat="43.988876941572286" lon="4.441745967809471"><ele>64.0</ele><time>2026-04-03T11:51:55Z</time></trkpt><trkpt lat="43.988795717279274" lon="4.44207300809182"><ele>64.0</ele><time>2026-04-03T11:51:56Z</time></trkpt><trkpt lat="43.98872810907322" lon="4.442402290708117"><ele>65.0</ele><time>2026-04-03T11:51:57Z</time></trkpt><trkpt lat="43.98866311399975" lon="4.442738840931365"><ele>66.0</ele><time>2026-04-03T11:51:58Z</time></trkpt><trkpt lat="43.988578450026026" lon="4.443055442149198"><ele>67.0</ele><time>2026-04-03T11:51:59Z</time></trkpt><trkpt lat="43.988485457486064" lon="4.443382298669279"><ele>68.0</ele><time>2026-04-03T11:52:00Z</time></trkpt><trkpt lat="43.98841394275759" lon="4.443736445721327"><ele>66.5</ele><time>2026-04-03T11:52:01Z</time></trkpt><trkpt lat="43.98834079511879" lon="4.444106248369425"><ele>65.0</ele><time>2026-04-03T11:52:02Z</time></trkpt><trkpt lat="43.9882552286047" lon="4.4444489544684025"><ele>65.5</ele><time>2026-04-03T11:52:03Z</time></trkpt><trkpt lat="43.9881697074017" lon="4.444757252700281"><ele>66.0</ele><time>2026-04-03T11:52:04Z</time></trkpt><trkpt lat="43.98808972726865" lon="4.445056120498974"><ele>66.0</ele><time>2026-04-03T11:52:05Z</time></trkpt><trkpt lat="43.98801608206523" lon="4.445384208757661"><ele>66.0</ele><time>2026-04-03T11:52:06Z</time></trkpt><trkpt lat="43.987943838695216" lon="4.445721156438845"><ele>66.5</ele><time>2026-04-03T11:52:07Z</time></trkpt><trkpt lat="43.98786387367227" lon="4.446067646879797"><ele>67.0</ele><time>2026-04-03T11:52:08Z</time></trkpt><trkpt lat="43.987779034422324" lon="4.446410805416101"><ele>68.0</ele><time>2026-04-03T11:52:09Z</time></trkpt><trkpt lat="43.98769518976657" lon="4.446748285285085"><ele>69.0</ele><time>2026-04-03T11:52:10Z</time></trkpt><trkpt lat="43.98761668571284" lon="4.447103640240878"><ele>68.5</ele><time>2026-04-03T11:52:11Z</time></trkpt><trkpt lat="43.987540675350914" lon="4.447460317110921"><ele>68.0</ele><time>2026-04-03T11:52:12Z</time></trkpt><trkpt lat="43.98745246424222" lon="4.4478206703687535"><ele>66.5</ele><time>2026-04-03T11:52:13Z</time></trkpt><trkpt lat="43.987360279057555" lon="4.448161957806865"><ele>65.0</ele><time>2026-04-03T11:52:14Z</time></trkpt><trkpt lat="43.98726770552795" lon="4.448490822824564"><ele>65.5</ele><time>2026-04-03T11:52:15Z</time></trkpt><trkpt lat="43.987179041135086" lon="4.448794079825487"><ele>66.0</ele><time>2026-04-03T11:52:16Z</time></trkpt><trkpt lat="43.987094745376055" lon="4.449076640882713"><ele>66.0</ele><time>2026-04-03T11:52:17Z</time></trkpt><trkpt lat="43.98702277460869" lon="4.449310960883593"><ele>66.0</ele><time>2026-04-03T11:52:18Z</time></trkpt><trkpt lat="43.986950571588615" lon="4.449523428958864"><ele>66.0</ele><time>2026-04-03T11:52:19Z</time></trkpt><trkpt lat="43.98686246482244" lon="4.449701682004307"><ele>66.75</ele><time>2026-04-03T11:52:20Z</time></trkpt><trkpt lat="43.98678159810422" lon="4.44982649590543"><ele>67.5</ele><time>2026-04-03T11:52:21Z</time></trkpt><trkpt lat="43.98675361678218" lon="4.449982069565536"><ele>68.25</ele><time>2026-04-03T11:52:22Z</time></trkpt><trkpt lat="43.98678452568572" lon="4.450190392712825"><ele>69.0</ele><time>2026-04-03T11:52:23Z</time></trkpt><trkpt lat="43.98678086646954" lon="4.45043953689113"><ele>69.0</ele><time>2026-04-03T11:52:24Z</time></trkpt><trkpt lat="43.98672179719748" lon="4.450718503814697"><ele>69.0</ele><time>2026-04-03T11:52:25Z</time></trkpt><trkpt lat="43.9866520919349" lon="4.451008567584419"><ele>69.0</ele><time>2026-04-03T11:52:26Z</time></trkpt><trkpt lat="43.986592897593475" lon="4.4512890542558"><ele>69.0</ele><time>2026-04-03T11:52:27Z</time></trkpt><trkpt lat="43.98653573114873" lon="4.451577449041114"><ele>69.0</ele><time>2026-04-03T11:52:28Z</time></trkpt><trkpt lat="43.98647453511035" lon="4.451874398596806"><ele>69.0</ele><time>2026-04-03T11:52:29Z</time></trkpt><trkpt lat="43.98640863524846" lon="4.45217583647117"><ele>69.5</ele><time>2026-04-03T11:52:30Z</time></trkpt><trkpt lat="43.98634001209656" lon="4.452486796508271"><ele>70.0</ele><time>2026-04-03T11:52:31Z</time></trkpt><trkpt lat="43.98627538805862" lon="4.452813224750144"><ele>70.0</ele><time>2026-04-03T11:52:32Z</time></trkpt><trkpt lat="43.98623001486692" lon="4.453148160126338"><ele>70.0</ele><time>2026-04-03T11:52:33Z</time></trkpt><trkpt lat="43.98620196548" lon="4.453503663024448"><ele>70.0</ele><time>2026-04-03T11:52:34Z</time></trkpt><trkpt lat="43.98617651445615" lon="4.453862298286754"><ele>70.0</ele><time>2026-04-03T11:52:35Z</time></trkpt><trkpt lat="43.986142162403176" lon="4.454211438612307"><ele>70.0</ele><time>2026-04-03T11:52:36Z</time></trkpt><trkpt lat="43.98610775582972" lon="4.45455611911873"><ele>70.0</ele><time>2026-04-03T11:52:37Z</time></trkpt><trkpt lat="43.98607676763271" lon="4.454896533651856"><ele>71.0</ele><time>2026-04-03T11:52:38Z</time></trkpt><trkpt lat="43.98604816345499" lon="4.455237092743234"><ele>72.0</ele><time>2026-04-03T11:52:39Z</time></trkpt><trkpt lat="43.98600588393184" lon="4.455581426082443"><ele>72.5</ele><time>2026-04-03T11:52:40Z</time></trkpt><trkpt lat="43.98593809849628" lon="4.455922152389168"><ele>73.0</ele><time>2026-04-03T11:52:41Z</time></trkpt><trkpt lat="43.98584110353763" lon="4.456252795950085"><ele>73.5</ele><time>2026-04-03T11:52:42Z</time></trkpt><trkpt lat="43.98573476374889" lon="4.456577236931354"><ele>74.0</ele><time>2026-04-03T11:52:43Z</time></trkpt><trkpt lat="43.98564426600583" lon="4.456915010675551"><ele>74.0</ele><time>2026-04-03T11:52:44Z</time></trkpt><trkpt lat="43.985554194274506" lon="4.457275320964418"><ele>74.0</ele><time>2026-04-03T11:52:45Z</time></trkpt><trkpt lat="43.98543707570834" lon="4.457644399981581"><ele>72.0</ele><time>2026-04-03T11:52:46Z</time></trkpt><trkpt lat="43.98532715704311" lon="4.458021658212388"><ele>70.0</ele><time>2026-04-03T11:52:47Z</time></trkpt><trkpt lat="43.98522802354928" lon="4.458414292696096"><ele>71.0</ele><time>2026-04-03T11:52:48Z</time></trkpt><trkpt lat="43.985115468481254" lon="4.4588224628083335"><ele>72.0</ele><time>2026-04-03T11:52:49Z</time></trkpt><trkpt lat="43.98499844758934" lon="4.459216972305341"><ele>70.0</ele><time>2026-04-03T11:52:50Z</time></trkpt><trkpt lat="43.98488601645807" lon="4.459595356325373"><ele>68.0</ele><time>2026-04-03T11:52:51Z</time></trkpt><trkpt lat="43.98478279921067" lon="4.45996485250808"><ele>68.0</ele><time>2026-04-03T11:52:52Z</time></trkpt><trkpt lat="43.98468557337198" lon="4.460330773720657"><ele>68.0</ele><time>2026-04-03T11:52:53Z</time></trkpt><trkpt lat="43.98457484518614" lon="4.460687696845264"><ele>68.0</ele><time>2026-04-03T11:52:54Z</time></trkpt><trkpt lat="43.984456077447334" lon="4.461053001661663"><ele>68.0</ele><time>2026-04-03T11:52:55Z</time></trkpt><trkpt lat="43.98434807231187" lon="4.461412146806618"><ele>68.5</ele><time>2026-04-03T11:52:56Z</time></trkpt><trkpt lat="43.98422573875454" lon="4.46177221851178"><ele>69.0</ele><time>2026-04-03T11:52:57Z</time></trkpt><trkpt lat="43.984091142658045" lon="4.462127657764733"><ele>68.0</ele><time>2026-04-03T11:52:58Z</time></trkpt><trkpt lat="43.98395318481954" lon="4.4624639696063"><ele>67.0</ele><time>2026-04-03T11:52:59Z</time></trkpt><trkpt lat="43.983821061615814" lon="4.462813076878577"><ele>67.0</ele><time>2026-04-03T11:53:00Z</time></trkpt><trkpt lat="43.98368247905678" lon="4.463153406345105"><ele>67.0</ele><time>2026-04-03T11:53:01Z</time></trkpt><trkpt lat="43.983536092538635" lon="4.463476735767916"><ele>66.5</ele><time>2026-04-03T11:53:02Z</time></trkpt><trkpt lat="43.983383989473474" lon="4.463793639314059"><ele>66.0</ele><time>2026-04-03T11:53:03Z</time></trkpt><trkpt lat="43.983229960054224" lon="4.464103940246897"><ele>66.0</ele><time>2026-04-03T11:53:04Z</time></trkpt><trkpt lat="43.98307934605487" lon="4.46441378069113"><ele>66.0</ele><time>2026-04-03T11:53:05Z</time></trkpt><trkpt lat="43.982933192123056" lon="4.464721386052025"><ele>66.0</ele><time>2026-04-03T11:53:06Z</time></trkpt><trkpt lat="43.982790774629336" lon="4.465027960695936"><ele>66.0</ele><time>2026-04-03T11:53:07Z</time></trkpt><trkpt lat="43.98265124004894" lon="4.465332888547452"><ele>65.5</ele><time>2026-04-03T11:53:08Z</time></trkpt><trkpt lat="43.98251074121258" lon="4.46563820002568"><ele>65.0</ele><time>2026-04-03T11:53:09Z</time></trkpt><trkpt lat="43.982374824521145" lon="4.465950237166749"><ele>65.0</ele><time>2026-04-03T11:53:10Z</time></trkpt><trkpt lat="43.98225155658171" lon="4.466267592153573"><ele>65.0</ele><time>2026-04-03T11:53:11Z</time></trkpt><trkpt lat="43.98213296549425" lon="4.466591713747185"><ele>64.0</ele><time>2026-04-03T11:53:12Z</time></trkpt><trkpt lat="43.982014483373845" lon="4.466930289315308"><ele>63.0</ele><time>2026-04-03T11:53:13Z</time></trkpt><trkpt lat="43.981892661184645" lon="4.4672719914034165"><ele>62.5</ele><time>2026-04-03T11:53:14Z</time></trkpt><trkpt lat="43.981768564592954" lon="4.467602554107098"><ele>62.0</ele><time>2026-04-03T11:53:15Z</time></trkpt><trkpt lat="43.98164344570926" lon="4.467934260364252"><ele>61.0</ele><time>2026-04-03T11:53:16Z</time></trkpt><trkpt lat="43.98153006754009" lon="4.46826525597481"><ele>60.0</ele><time>2026-04-03T11:53:17Z</time></trkpt><trkpt lat="43.98141517902017" lon="4.468619145452183"><ele>59.5</ele><time>2026-04-03T11:53:18Z</time></trkpt><trkpt lat="43.98130264889532" lon="4.468959155353003"><ele>59.0</ele><time>2026-04-03T11:53:19Z</time></trkpt><trkpt lat="43.981177042103106" lon="4.469292157030787"><ele>59.5</ele><time>2026-04-03T11:53:20Z</time></trkpt><trkpt lat="43.981053553649105" lon="4.469623817622948"><ele>60.0</ele><time>2026-04-03T11:53:21Z</time></trkpt><trkpt lat="43.98092750387271" lon="4.469951254531732"><ele>59.0</ele><time>2026-04-03T11:53:22Z</time></trkpt><trkpt lat="43.980794892976476" lon="4.470272381789988"><ele>58.0</ele><time>2026-04-03T11:53:23Z</time></trkpt><trkpt lat="43.980643497385344" lon="4.470584408191629"><ele>58.0</ele><time>2026-04-03T11:53:24Z</time></trkpt><trkpt lat="43.98048817178532" lon="4.470886875345119"><ele>58.0</ele><time>2026-04-03T11:53:25Z</time></trkpt><trkpt lat="43.98033353142574" lon="4.471188532692186"><ele>58.5</ele><time>2026-04-03T11:53:26Z</time></trkpt><trkpt lat="43.98018827325132" lon="4.471502841886568"><ele>59.0</ele><time>2026-04-03T11:53:27Z</time></trkpt><trkpt lat="43.98004280761729" lon="4.471807044715631"><ele>60.5</ele><time>2026-04-03T11:53:28Z</time></trkpt><trkpt lat="43.97989097953148" lon="4.472109622169084"><ele>62.0</ele><time>2026-04-03T11:53:29Z</time></trkpt><trkpt lat="43.97975011054073" lon="4.472405019697878"><ele>62.0</ele><time>2026-04-03T11:53:30Z</time></trkpt><trkpt lat="43.97961277616012" lon="4.472692816189001"><ele>62.0</ele><time>2026-04-03T11:53:31Z</time></trkpt><trkpt lat="43.979480466087594" lon="4.472984294849002"><ele>62.5</ele><time>2026-04-03T11:53:32Z</time></trkpt><trkpt lat="43.97936651559634" lon="4.4733160842547495"><ele>63.0</ele><time>2026-04-03T11:53:33Z</time></trkpt><trkpt lat="43.97926931589966" lon="4.473671383564952"><ele>61.5</ele><time>2026-04-03T11:53:34Z</time></trkpt><trkpt lat="43.97917979892861" lon="4.474030051300991"><ele>60.0</ele><time>2026-04-03T11:53:35Z</time></trkpt><trkpt lat="43.97908344831675" lon="4.474380495337933"><ele>59.5</ele><time>2026-04-03T11:53:36Z</time></trkpt><trkpt lat="43.97898131618043" lon="4.4747240265491595"><ele>59.0</ele><time>2026-04-03T11:53:37Z</time></trkpt><trkpt lat="43.978887127795204" lon="4.475064929062808"><ele>59.0</ele><time>2026-04-03T11:53:38Z</time></trkpt><trkpt lat="43.97880200291087" lon="4.475398588044914"><ele>59.0</ele><time>2026-04-03T11:53:39Z</time></trkpt><trkpt lat="43.978715937160835" lon="4.475722240953427"><ele>60.0</ele><time>2026-04-03T11:53:40Z</time></trkpt><trkpt lat="43.978621244507316" lon="4.476038939322046"><ele>61.0</ele><time>2026-04-03T11:53:41Z</time></trkpt><trkpt lat="43.97852665435391" lon="4.476353388104182"><ele>61.5</ele><time>2026-04-03T11:53:42Z</time></trkpt><trkpt lat="43.97843698123368" lon="4.47667226391052"><ele>62.0</ele><time>2026-04-03T11:53:43Z</time></trkpt><trkpt lat="43.978350518783415" lon="4.476993097898644"><ele>59.5</ele><time>2026-04-03T11:53:44Z</time></trkpt><trkpt lat="43.97826269689703" lon="4.47730993052034"><ele>57.0</ele><time>2026-04-03T11:53:45Z</time></trkpt><trkpt lat="43.97817321482992" lon="4.477627638294558"><ele>57.0</ele><time>2026-04-03T11:53:46Z</time></trkpt><trkpt lat="43.9780821272094" lon="4.477934884052893"><ele>57.0</ele><time>2026-04-03T11:53:47Z</time></trkpt><trkpt lat="43.9779887239627" lon="4.47824660779252"><ele>56.5</ele><time>2026-04-03T11:53:48Z</time></trkpt><trkpt lat="43.97790510824863" lon="4.478569006741801"><ele>56.0</ele><time>2026-04-03T11:53:49Z</time></trkpt><trkpt lat="43.977827169969956" lon="4.478892308383739"><ele>56.0</ele><time>2026-04-03T11:53:50Z</time></trkpt><trkpt lat="43.97774146861374" lon="4.479210701648501"><ele>56.0</ele><time>2026-04-03T11:53:51Z</time></trkpt><trkpt lat="43.977649929445974" lon="4.479527617851154"><ele>56.0</ele><time>2026-04-03T11:53:52Z</time></trkpt><trkpt lat="43.97755670145131" lon="4.4798555369095725"><ele>56.0</ele><time>2026-04-03T11:53:53Z</time></trkpt><trkpt lat="43.97746873442806" lon="4.480161600687428"><ele>55.5</ele><time>2026-04-03T11:53:54Z</time></trkpt><trkpt lat="43.97738526225327" lon="4.480481039002047"><ele>55.0</ele><time>2026-04-03T11:53:55Z</time></trkpt><trkpt lat="43.97729549402427" lon="4.48081513816071"><ele>55.0</ele><time>2026-04-03T11:53:56Z</time></trkpt><trkpt lat="43.9771980999521" lon="4.481150567017883"><ele>55.0</ele><time>2026-04-03T11:53:57Z</time></trkpt><trkpt lat="43.977096474937035" lon="4.48148275545982"><ele>55.5</ele><time>2026-04-03T11:53:58Z</time></trkpt><trkpt lat="43.97701111423067" lon="4.48180087346462"><ele>56.0</ele><time>2026-04-03T11:53:59Z</time></trkpt><trkpt lat="43.976920922670466" lon="4.482131240504725"><ele>56.0</ele><time>2026-04-03T11:54:00Z</time></trkpt><trkpt lat="43.97683135534897" lon="4.482463904098996"><ele>56.0</ele><time>2026-04-03T11:54:01Z</time></trkpt><trkpt lat="43.976742233636955" lon="4.482793032615186"><ele>55.5</ele><time>2026-04-03T11:54:02Z</time></trkpt><trkpt lat="43.97664787990084" lon="4.483131503761834"><ele>55.0</ele><time>2026-04-03T11:54:03Z</time></trkpt><trkpt lat="43.97655732839424" lon="4.483460038272851"><ele>55.5</ele><time>2026-04-03T11:54:04Z</time></trkpt><trkpt lat="43.97646483189631" lon="4.483793550943584"><ele>56.0</ele><time>2026-04-03T11:54:05Z</time></trkpt><trkpt lat="43.976374079013205" lon="4.484123286984222"><ele>56.0</ele><time>2026-04-03T11:54:06Z</time></trkpt><trkpt lat="43.97628199037645" lon="4.4844487612708415"><ele>56.0</ele><time>2026-04-03T11:54:07Z</time></trkpt><trkpt lat="43.97619186402086" lon="4.484777621828674"><ele>56.0</ele><time>2026-04-03T11:54:08Z</time></trkpt><trkpt lat="43.97610243160365" lon="4.485127648565476"><ele>56.0</ele><time>2026-04-03T11:54:09Z</time></trkpt><trkpt lat="43.97600740957644" lon="4.4854912414986545"><ele>56.0</ele><time>2026-04-03T11:54:10Z</time></trkpt><trkpt lat="43.97590432737563" lon="4.485844141154589"><ele>56.0</ele><time>2026-04-03T11:54:11Z</time></trkpt><trkpt lat="43.97579829089603" lon="4.486192740154654"><ele>55.5</ele><time>2026-04-03T11:54:12Z</time></trkpt><trkpt lat="43.975689012367745" lon="4.486542155766502"><ele>55.0</ele><time>2026-04-03T11:54:13Z</time></trkpt><trkpt lat="43.97558395975695" lon="4.4868966759380875"><ele>55.0</ele><time>2026-04-03T11:54:14Z</time></trkpt><trkpt lat="43.975489221946226" lon="4.487252010254424"><ele>55.0</ele><time>2026-04-03T11:54:15Z</time></trkpt><trkpt lat="43.97539812176952" lon="4.4876040785270535"><ele>53.5</ele><time>2026-04-03T11:54:16Z</time></trkpt><trkpt lat="43.97529770582665" lon="4.487965962651421"><ele>52.0</ele><time>2026-04-03T11:54:17Z</time></trkpt><trkpt lat="43.97520185610045" lon="4.48831348249958"><ele>52.0</ele><time>2026-04-03T11:54:18Z</time></trkpt><trkpt lat="43.97509802709278" lon="4.4886732591153775"><ele>52.0</ele><time>2026-04-03T11:54:19Z</time></trkpt><trkpt lat="43.974993003801444" lon="4.4890245305477325"><ele>52.0</ele><time>2026-04-03T11:54:20Z</time></trkpt><trkpt lat="43.974891868472994" lon="4.489369637553414"><ele>52.0</ele><time>2026-04-03T11:54:21Z</time></trkpt><trkpt lat="43.974804221717264" lon="4.489715360075694"><ele>52.0</ele><time>2026-04-03T11:54:22Z</time></trkpt><trkpt lat="43.9747261865765" lon="4.490063865918174"><ele>52.0</ele><time>2026-04-03T11:54:23Z</time></trkpt><trkpt lat="43.97463353416327" lon="4.49040139644065"><ele>52.5</ele><time>2026-04-03T11:54:24Z</time></trkpt><trkpt lat="43.97452270889967" lon="4.490727743300814"><ele>53.0</ele><time>2026-04-03T11:54:25Z</time></trkpt><trkpt lat="43.974427477007026" lon="4.491065962276631"><ele>54.0</ele><time>2026-04-03T11:54:26Z</time></trkpt><trkpt lat="43.97434379603023" lon="4.491418886653979"><ele>55.0</ele><time>2026-04-03T11:54:27Z</time></trkpt><trkpt lat="43.974240753046665" lon="4.491757653873111"><ele>55.0</ele><time>2026-04-03T11:54:28Z</time></trkpt><trkpt lat="43.974134865419806" lon="4.4921036145274496"><ele>55.0</ele><time>2026-04-03T11:54:29Z</time></trkpt><trkpt lat="43.9740485541563" lon="4.492449039983269"><ele>55.0</ele><time>2026-04-03T11:54:30Z</time></trkpt><trkpt lat="43.973961516939056" lon="4.4927897662870935"><ele>55.0</ele><time>2026-04-03T11:54:31Z</time></trkpt><trkpt lat="43.9738671733705" lon="4.493120594929861"><ele>55.0</ele><time>2026-04-03T11:54:32Z</time></trkpt><trkpt lat="43.97377341968068" lon="4.493433354309412"><ele>55.0</ele><time>2026-04-03T11:54:33Z</time></trkpt><trkpt lat="43.97369954713929" lon="4.493730311647561"><ele>54.666666666666664</ele><time>2026-04-03T11:54:34Z</time></trkpt><trkpt lat="43.97364693749173" lon="4.494014390233665"><ele>54.33333333333333</ele><time>2026-04-03T11:54:35Z</time></trkpt><trkpt lat="43.97358458344467" lon="4.494302823562869"><ele>54.0</ele><time>2026-04-03T11:54:36Z</time></trkpt><trkpt lat="43.9735227444668" lon="4.494575893818233"><ele>54.33333333333333</ele><time>2026-04-03T11:54:37Z</time></trkpt><trkpt lat="43.97346069037398" lon="4.494836499205243"><ele>54.666666666666664</ele><time>2026-04-03T11:54:38Z</time></trkpt><trkpt lat="43.97340264093419" lon="4.49507904616843"><ele>55.0</ele><time>2026-04-03T11:54:39Z</time></trkpt><trkpt lat="43.97333445548738" lon="4.4953168516646045"><ele>55.0</ele><time>2026-04-03T11:54:40Z</time></trkpt><trkpt lat="43.97326080240034" lon="4.495554329827739"><ele>55.0</ele><time>2026-04-03T11:54:41Z</time></trkpt><trkpt lat="43.97317655350875" lon="4.495775714282274"><ele>55.0</ele><time>2026-04-03T11:54:42Z</time></trkpt><trkpt lat="43.973083995313125" lon="4.495970931367341"><ele>55.0</ele><time>2026-04-03T11:54:43Z</time></trkpt><trkpt lat="43.972988554799684" lon="4.4961452433718305"><ele>55.0</ele><time>2026-04-03T11:54:44Z</time></trkpt><trkpt lat="43.97289581546722" lon="4.496309888901339"><ele>55.0</ele><time>2026-04-03T11:54:45Z</time></trkpt><trkpt lat="43.972797916848364" lon="4.496481927405258"><ele>55.33333333333333</ele><time>2026-04-03T11:54:46Z</time></trkpt><trkpt lat="43.97267739714694" lon="4.496677732260079"><ele>55.66666666666667</ele><time>2026-04-03T11:54:47Z</time></trkpt><trkpt lat="43.97255187815349" lon="4.496864310822388"><ele>56.0</ele><time>2026-04-03T11:54:48Z</time></trkpt><trkpt lat="43.97242342369871" lon="4.497035127106116"><ele>56.66666666666667</ele><time>2026-04-03T11:54:49Z</time></trkpt><trkpt lat="43.97229806894455" lon="4.497190986267747"><ele>57.33333333333333</ele><time>2026-04-03T11:54:50Z</time></trkpt><trkpt lat="43.97219143799596" lon="4.497328006056874"><ele>58.0</ele><time>2026-04-03T11:54:51Z</time></trkpt><trkpt lat="43.97208251117379" lon="4.497462315107795"><ele>58.0</ele><time>2026-04-03T11:54:52Z</time></trkpt><trkpt lat="43.9719638286242" lon="4.497580773861818"><ele>58.0</ele><time>2026-04-03T11:54:53Z</time></trkpt><trkpt lat="43.97183719688506" lon="4.497655456561211"><ele>58.0</ele><time>2026-04-03T11:54:54Z</time></trkpt><trkpt lat="43.97172178388375" lon="4.497720387441061"><ele>58.0</ele><time>2026-04-03T11:54:55Z</time></trkpt><trkpt lat="43.97164301535005" lon="4.497847661069489"><ele>57.0</ele><time>2026-04-03T11:54:56Z</time></trkpt><trkpt lat="43.97160656288323" lon="4.4980437121357"><ele>56.0</ele><time>2026-04-03T11:54:57Z</time></trkpt><trkpt lat="43.97155997008912" lon="4.498285773877196"><ele>55.0</ele><time>2026-04-03T11:54:58Z</time></trkpt><trkpt lat="43.9714497241361" lon="4.498523752946244"><ele>56.5</ele><time>2026-04-03T11:54:59Z</time></trkpt><trkpt lat="43.97131817622662" lon="4.498781681293305"><ele>58.0</ele><time>2026-04-03T11:55:00Z</time></trkpt><trkpt lat="43.97119023928469" lon="4.499081453573403"><ele>58.0</ele><time>2026-04-03T11:55:01Z</time></trkpt><trkpt lat="43.97104693031084" lon="4.499420999240698"><ele>58.0</ele><time>2026-04-03T11:55:02Z</time></trkpt><trkpt lat="43.97089861478999" lon="4.4997520874725465"><ele>56.5</ele><time>2026-04-03T11:55:03Z</time></trkpt><trkpt lat="43.970758607750625" lon="4.4999817975508805"><ele>55.0</ele><time>2026-04-03T11:55:04Z</time></trkpt><trkpt lat="43.97060438995637" lon="4.500228025875411"><ele>55.0</ele><time>2026-04-03T11:55:05Z</time></trkpt><trkpt lat="43.970440747436975" lon="4.500493121493785"><ele>55.0</ele><time>2026-04-03T11:55:06Z</time></trkpt><trkpt lat="43.970272393393564" lon="4.500787720582582"><ele>55.0</ele><time>2026-04-03T11:55:07Z</time></trkpt><trkpt lat="43.97010065842921" lon="4.501088186882817"><ele>55.0</ele><time>2026-04-03T11:55:08Z</time></trkpt><trkpt lat="43.96992511266714" lon="4.501374747570666"><ele>56.0</ele><time>2026-04-03T11:55:09Z</time></trkpt><trkpt lat="43.96974728359748" lon="4.501645859209909"><ele>57.0</ele><time>2026-04-03T11:55:10Z</time></trkpt><trkpt lat="43.96957694298531" lon="4.5019209639934"><ele>56.5</ele><time>2026-04-03T11:55:11Z</time></trkpt><trkpt lat="43.969418601520566" lon="4.502199735730849"><ele>56.0</ele><time>2026-04-03T11:55:12Z</time></trkpt><trkpt lat="43.969267997128625" lon="4.502480980257355"><ele>55.5</ele><time>2026-04-03T11:55:13Z</time></trkpt><trkpt lat="43.969127998317525" lon="4.502774250594442"><ele>55.0</ele><time>2026-04-03T11:55:14Z</time></trkpt><trkpt lat="43.96900551056574" lon="4.503081619049926"><ele>55.0</ele><time>2026-04-03T11:55:15Z</time></trkpt><trkpt lat="43.968880903205985" lon="4.50338292004402"><ele>55.0</ele><time>2026-04-03T11:55:16Z</time></trkpt><trkpt lat="43.96874399580511" lon="4.503669406830992"><ele>55.0</ele><time>2026-04-03T11:55:17Z</time></trkpt><trkpt lat="43.96861647003641" lon="4.503962706366885"><ele>55.0</ele><time>2026-04-03T11:55:18Z</time></trkpt><trkpt lat="43.968500683770245" lon="4.50426245174135"><ele>55.0</ele><time>2026-04-03T11:55:19Z</time></trkpt><trkpt lat="43.96837363248042" lon="4.5045507394571915"><ele>55.0</ele><time>2026-04-03T11:55:20Z</time></trkpt><trkpt lat="43.9682375511121" lon="4.504833886720938"><ele>55.0</ele><time>2026-04-03T11:55:21Z</time></trkpt><trkpt lat="43.96810604239363" lon="4.505121647058948"><ele>55.0</ele><time>2026-04-03T11:55:22Z</time></trkpt><trkpt lat="43.96798473817628" lon="4.5054154344522175"><ele>55.0</ele><time>2026-04-03T11:55:23Z</time></trkpt><trkpt lat="43.96785948100613" lon="4.505700846802771"><ele>55.0</ele><time>2026-04-03T11:55:24Z</time></trkpt><trkpt lat="43.96772590488236" lon="4.505994017625727"><ele>54.5</ele><time>2026-04-03T11:55:25Z</time></trkpt><trkpt lat="43.96759658907774" lon="4.506286286565328"><ele>54.0</ele><time>2026-04-03T11:55:26Z</time></trkpt><trkpt lat="43.96746857211606" lon="4.506569628010156"><ele>54.0</ele><time>2026-04-03T11:55:27Z</time></trkpt><trkpt lat="43.96733800361063" lon="4.506856299889515"><ele>54.0</ele><time>2026-04-03T11:55:28Z</time></trkpt><trkpt lat="43.96721290150087" lon="4.507142033640799"><ele>54.0</ele><time>2026-04-03T11:55:29Z</time></trkpt><trkpt lat="43.96708372686948" lon="4.507429085014559"><ele>54.0</ele><time>2026-04-03T11:55:30Z</time></trkpt><trkpt lat="43.966951731536554" lon="4.50771831259343"><ele>53.0</ele><time>2026-04-03T11:55:31Z</time></trkpt><trkpt lat="43.966803885239635" lon="4.507991425549017"><ele>52.0</ele><time>2026-04-03T11:55:32Z</time></trkpt><trkpt lat="43.966657802964875" lon="4.508263327835712"><ele>52.0</ele><time>2026-04-03T11:55:33Z</time></trkpt><trkpt lat="43.96651835559868" lon="4.508543310523341"><ele>52.0</ele><time>2026-04-03T11:55:34Z</time></trkpt><trkpt lat="43.966385748741985" lon="4.508831985411125"><ele>51.5</ele><time>2026-04-03T11:55:35Z</time></trkpt><trkpt lat="43.966252659936615" lon="4.509129950601997"><ele>51.0</ele><time>2026-04-03T11:55:36Z</time></trkpt><trkpt lat="43.966118446773265" lon="4.5094183535056676"><ele>50.5</ele><time>2026-04-03T11:55:37Z</time></trkpt><trkpt lat="43.9659768154446" lon="4.50969935723183"><ele>50.0</ele><time>2026-04-03T11:55:38Z</time></trkpt><trkpt lat="43.96583908716899" lon="4.509982286405246"><ele>49.5</ele><time>2026-04-03T11:55:39Z</time></trkpt><trkpt lat="43.965702155079356" lon="4.510263004160417"><ele>49.0</ele><time>2026-04-03T11:55:40Z</time></trkpt><trkpt lat="43.965570376520056" lon="4.510545891757189"><ele>48.5</ele><time>2026-04-03T11:55:41Z</time></trkpt><trkpt lat="43.965439248261845" lon="4.510832432283479"><ele>48.0</ele><time>2026-04-03T11:55:42Z</time></trkpt><trkpt lat="43.96529948529" lon="4.511120013726784"><ele>48.0</ele><time>2026-04-03T11:55:43Z</time></trkpt><trkpt lat="43.96514981917434" lon="4.51139133132538"><ele>48.0</ele><time>2026-04-03T11:55:44Z</time></trkpt><trkpt lat="43.964992827842835" lon="4.511655305553208"><ele>47.0</ele><time>2026-04-03T11:55:45Z</time></trkpt><trkpt lat="43.964836275174775" lon="4.511916489438618"><ele>46.0</ele><time>2026-04-03T11:55:46Z</time></trkpt><trkpt lat="43.96466085293886" lon="4.512168561566275"><ele>46.0</ele><time>2026-04-03T11:55:47Z</time></trkpt><trkpt lat="43.964486765763176" lon="4.5124305099334485"><ele>46.0</ele><time>2026-04-03T11:55:48Z</time></trkpt><trkpt lat="43.964299332164124" lon="4.512673381465369"><ele>45.5</ele><time>2026-04-03T11:55:49Z</time></trkpt><trkpt lat="43.964106744833174" lon="4.512901968104578"><ele>45.0</ele><time>2026-04-03T11:55:50Z</time></trkpt><trkpt lat="43.96392086710034" lon="4.513128046266207"><ele>44.5</ele><time>2026-04-03T11:55:51Z</time></trkpt><trkpt lat="43.963747594069204" lon="4.513353763378484"><ele>44.0</ele><time>2026-04-03T11:55:52Z</time></trkpt><trkpt lat="43.96357734830783" lon="4.5135723774386065"><ele>43.5</ele><time>2026-04-03T11:55:53Z</time></trkpt><trkpt lat="43.96340842168343" lon="4.513784541292115"><ele>43.0</ele><time>2026-04-03T11:55:54Z</time></trkpt><trkpt lat="43.963240851640855" lon="4.513998075577321"><ele>42.0</ele><time>2026-04-03T11:55:55Z</time></trkpt><trkpt lat="43.963074269096076" lon="4.514230402889028"><ele>41.0</ele><time>2026-04-03T11:55:56Z</time></trkpt><trkpt lat="43.9629094815937" lon="4.514458306666608"><ele>40.5</ele><time>2026-04-03T11:55:57Z</time></trkpt><trkpt lat="43.96274265945695" lon="4.51466960979363"><ele>40.0</ele><time>2026-04-03T11:55:58Z</time></trkpt><trkpt lat="43.96257268559125" lon="4.514874662226692"><ele>40.5</ele><time>2026-04-03T11:55:59Z</time></trkpt><trkpt lat="43.962403852093374" lon="4.515094423462107"><ele>41.0</ele><time>2026-04-03T11:56:00Z</time></trkpt><trkpt lat="43.962233026016136" lon="4.515319008578752"><ele>39.5</ele><time>2026-04-03T11:56:01Z</time></trkpt><trkpt lat="43.96205929242062" lon="4.515543087204075"><ele>38.0</ele><time>2026-04-03T11:56:02Z</time></trkpt><trkpt lat="43.96188869426294" lon="4.515768217533891"><ele>38.0</ele><time>2026-04-03T11:56:03Z</time></trkpt><trkpt lat="43.961726363721134" lon="4.515978596523241"><ele>38.0</ele><time>2026-04-03T11:56:04Z</time></trkpt><trkpt lat="43.961569780715095" lon="4.516188676454515"><ele>38.0</ele><time>2026-04-03T11:56:05Z</time></trkpt><trkpt lat="43.96144394185341" lon="4.516478342382144"><ele>37.0</ele><time>2026-04-03T11:56:06Z</time></trkpt><trkpt lat="43.96127732608571" lon="4.516739081049974"><ele>36.0</ele><time>2026-04-03T11:56:07Z</time></trkpt><trkpt lat="43.96110647788939" lon="4.51698236111156"><ele>36.0</ele><time>2026-04-03T11:56:08Z</time></trkpt><trkpt lat="43.960926658466306" lon="4.517204137808416"><ele>36.0</ele><time>2026-04-03T11:56:09Z</time></trkpt><trkpt lat="43.96074245834004" lon="4.51742601104103"><ele>36.0</ele><time>2026-04-03T11:56:10Z</time></trkpt><trkpt lat="43.960559198431255" lon="4.517670565850274"><ele>36.0</ele><time>2026-04-03T11:56:11Z</time></trkpt><trkpt lat="43.960364773669056" lon="4.5179127372687065"><ele>36.0</ele><time>2026-04-03T11:56:12Z</time></trkpt><trkpt lat="43.96017536150449" lon="4.518152704783958"><ele>36.0</ele><time>2026-04-03T11:56:13Z</time></trkpt><trkpt lat="43.95999859309196" lon="4.518412957163079"><ele>36.0</ele><time>2026-04-03T11:56:14Z</time></trkpt><trkpt lat="43.95983265293769" lon="4.518684979165569"><ele>36.0</ele><time>2026-04-03T11:56:15Z</time></trkpt><trkpt lat="43.95966396544316" lon="4.518947956884517"><ele>36.0</ele><time>2026-04-03T11:56:16Z</time></trkpt><trkpt lat="43.959494491202456" lon="4.519208434793807"><ele>36.0</ele><time>2026-04-03T11:56:17Z</time></trkpt><trkpt lat="43.95933291170046" lon="4.5194751416286305"><ele>35.0</ele><time>2026-04-03T11:56:18Z</time></trkpt><trkpt lat="43.959176692687294" lon="4.51975116857847"><ele>34.0</ele><time>2026-04-03T11:56:19Z</time></trkpt><trkpt lat="43.95901080012073" lon="4.52003182474622"><ele>34.0</ele><time>2026-04-03T11:56:20Z</time></trkpt><trkpt lat="43.95882122360284" lon="4.5203004444405375"><ele>34.0</ele><time>2026-04-03T11:56:21Z</time></trkpt><trkpt lat="43.95863133706559" lon="4.520575479482765"><ele>34.0</ele><time>2026-04-03T11:56:22Z</time></trkpt><trkpt lat="43.958457192794086" lon="4.520872815996742"><ele>34.0</ele><time>2026-04-03T11:56:23Z</time></trkpt><trkpt lat="43.95829536975205" lon="4.521177608981596"><ele>34.0</ele><time>2026-04-03T11:56:24Z</time></trkpt><trkpt lat="43.95814345133358" lon="4.521482930473897"><ele>34.0</ele><time>2026-04-03T11:56:25Z</time></trkpt><trkpt lat="43.95800101375925" lon="4.521790349951821"><ele>33.5</ele><time>2026-04-03T11:56:26Z</time></trkpt><trkpt lat="43.95785854731765" lon="4.522092225093204"><ele>33.0</ele><time>2026-04-03T11:56:27Z</time></trkpt><trkpt lat="43.95772818509667" lon="4.522401453835673"><ele>33.0</ele><time>2026-04-03T11:56:28Z</time></trkpt><trkpt lat="43.95762732199505" lon="4.522751778741858"><ele>33.0</ele><time>2026-04-03T11:56:29Z</time></trkpt><trkpt lat="43.957557486943834" lon="4.523116065880348"><ele>32.5</ele><time>2026-04-03T11:56:30Z</time></trkpt><trkpt lat="43.95751100502695" lon="4.523475669035282"><ele>32.0</ele><time>2026-04-03T11:56:31Z</time></trkpt><trkpt lat="43.95748288968588" lon="4.5238381853964125"><ele>33.0</ele><time>2026-04-03T11:56:32Z</time></trkpt><trkpt lat="43.95747109169378" lon="4.524206186703522"><ele>34.0</ele><time>2026-04-03T11:56:33Z</time></trkpt><trkpt lat="43.957456970634595" lon="4.524573537331303"><ele>35.0</ele><time>2026-04-03T11:56:34Z</time></trkpt><trkpt lat="43.95743915309612" lon="4.524948487901617"><ele>36.0</ele><time>2026-04-03T11:56:35Z</time></trkpt><trkpt lat="43.957412895614624" lon="4.525331008382178"><ele>36.0</ele><time>2026-04-03T11:56:36Z</time></trkpt><trkpt lat="43.95738984391932" lon="4.525713463994261"><ele>36.0</ele><time>2026-04-03T11:56:37Z</time></trkpt><trkpt lat="43.957377288144315" lon="4.526086889423845"><ele>37.0</ele><time>2026-04-03T11:56:38Z</time></trkpt><trkpt lat="43.95736872516559" lon="4.526457558679313"><ele>38.0</ele><time>2026-04-03T11:56:39Z</time></trkpt><trkpt lat="43.95735621249544" lon="4.526813022404538"><ele>37.5</ele><time>2026-04-03T11:56:40Z</time></trkpt><trkpt lat="43.95733055096899" lon="4.5271750679259615"><ele>37.0</ele><time>2026-04-03T11:56:41Z</time></trkpt><trkpt lat="43.95727806615309" lon="4.527546008244672"><ele>38.5</ele><time>2026-04-03T11:56:42Z</time></trkpt><trkpt lat="43.95720509690834" lon="4.527917394626393"><ele>40.0</ele><time>2026-04-03T11:56:43Z</time></trkpt><trkpt lat="43.957134900775536" lon="4.528267792005284"><ele>40.0</ele><time>2026-04-03T11:56:44Z</time></trkpt><trkpt lat="43.95707251476638" lon="4.5286088595212375"><ele>40.0</ele><time>2026-04-03T11:56:45Z</time></trkpt><trkpt lat="43.95701226284054" lon="4.5289401530938305"><ele>41.5</ele><time>2026-04-03T11:56:46Z</time></trkpt><trkpt lat="43.95695190793904" lon="4.529262768165091"><ele>43.0</ele><time>2026-04-03T11:56:47Z</time></trkpt><trkpt lat="43.95688739090558" lon="4.529562055688799"><ele>43.0</ele><time>2026-04-03T11:56:48Z</time></trkpt><trkpt lat="43.9568221488854" lon="4.5298294397639545"><ele>43.0</ele><time>2026-04-03T11:56:49Z</time></trkpt><trkpt lat="43.956764187596406" lon="4.530075248668517"><ele>43.0</ele><time>2026-04-03T11:56:50Z</time></trkpt><trkpt lat="43.95670851663402" lon="4.53029832061137"><ele>44.0</ele><time>2026-04-03T11:56:51Z</time></trkpt><trkpt lat="43.95664825156384" lon="4.53049528637802"><ele>45.0</ele><time>2026-04-03T11:56:52Z</time></trkpt><trkpt lat="43.956566171931904" lon="4.530671141219794"><ele>46.0</ele><time>2026-04-03T11:56:53Z</time></trkpt><trkpt lat="43.956497421440325" lon="4.530833311388592"><ele>47.0</ele><time>2026-04-03T11:56:54Z</time></trkpt><trkpt lat="43.95649140335109" lon="4.5310375546474315"><ele>47.33333333333333</ele><time>2026-04-03T11:56:55Z</time></trkpt><trkpt lat="43.956492308567974" lon="4.531276157561224"><ele>47.666666666666664</ele><time>2026-04-03T11:56:56Z</time></trkpt><trkpt lat="43.95642338014624" lon="4.531533313946165"><ele>48.0</ele><time>2026-04-03T11:56:57Z</time></trkpt><trkpt lat="43.95632572181075" lon="4.531788342824283"><ele>50.5</ele><time>2026-04-03T11:56:58Z</time></trkpt><trkpt lat="43.95622981368293" lon="4.5320668825903905"><ele>53.0</ele><time>2026-04-03T11:56:59Z</time></trkpt><trkpt lat="43.956110970414265" lon="4.532361930870146"><ele>53.0</ele><time>2026-04-03T11:57:00Z</time></trkpt><trkpt lat="43.955982021821825" lon="4.532652856400714"><ele>53.0</ele><time>2026-04-03T11:57:01Z</time></trkpt><trkpt lat="43.95585821100277" lon="4.532938416957398"><ele>49.5</ele><time>2026-04-03T11:57:02Z</time></trkpt><trkpt lat="43.955737062205614" lon="4.533234251610317"><ele>46.0</ele><time>2026-04-03T11:57:03Z</time></trkpt><trkpt lat="43.95560680638979" lon="4.533545123094918"><ele>45.0</ele><time>2026-04-03T11:57:04Z</time></trkpt><trkpt lat="43.955474686562226" lon="4.533861664251884"><ele>44.0</ele><time>2026-04-03T11:57:05Z</time></trkpt><trkpt lat="43.95533918977113" lon="4.534178176539024"><ele>44.0</ele><time>2026-04-03T11:57:06Z</time></trkpt><trkpt lat="43.95520576691639" lon="4.534495748699162"><ele>44.0</ele><time>2026-04-03T11:57:07Z</time></trkpt><trkpt lat="43.95507940011361" lon="4.534807165174129"><ele>42.5</ele><time>2026-04-03T11:57:08Z</time></trkpt><trkpt lat="43.95497361617979" lon="4.535103354894018"><ele>41.0</ele><time>2026-04-03T11:57:09Z</time></trkpt><trkpt lat="43.95489408911773" lon="4.535394281362064"><ele>41.0</ele><time>2026-04-03T11:57:10Z</time></trkpt><trkpt lat="43.954841518670705" lon="4.535683868550965"><ele>41.0</ele><time>2026-04-03T11:57:11Z</time></trkpt><trkpt lat="43.954793476506055" lon="4.535991612912043"><ele>41.0</ele><time>2026-04-03T11:57:12Z</time></trkpt><trkpt lat="43.95476821387433" lon="4.536289498872716"><ele>40.666666666666664</ele><time>2026-04-03T11:57:13Z</time></trkpt><trkpt lat="43.9547630784958" lon="4.536571755172589"><ele>40.333333333333336</ele><time>2026-04-03T11:57:14Z</time></trkpt><trkpt lat="43.95476957521523" lon="4.536830740737242"><ele>40.0</ele><time>2026-04-03T11:57:15Z</time></trkpt><trkpt lat="43.954750757972775" lon="4.537079878532265"><ele>39.0</ele><time>2026-04-03T11:57:16Z</time></trkpt><trkpt lat="43.95475513607023" lon="4.537308561460468"><ele>38.0</ele><time>2026-04-03T11:57:17Z</time></trkpt><trkpt lat="43.95476324941983" lon="4.537525144374723"><ele>37.0</ele><time>2026-04-03T11:57:18Z</time></trkpt><trkpt lat="43.95478954737363" lon="4.537731257357803"><ele>37.0</ele><time>2026-04-03T11:57:19Z</time></trkpt><trkpt lat="43.95479405337448" lon="4.537925055503154"><ele>37.0</ele><time>2026-04-03T11:57:20Z</time></trkpt><trkpt lat="43.954800866638884" lon="4.538108176132511"><ele>37.0</ele><time>2026-04-03T11:57:21Z</time></trkpt><trkpt lat="43.95480741488495" lon="4.538284513865662"><ele>37.0</ele><time>2026-04-03T11:57:22Z</time></trkpt><trkpt lat="43.95481418394351" lon="4.538450518681969"><ele>37.0</ele><time>2026-04-03T11:57:23Z</time></trkpt><trkpt lat="43.95482052445443" lon="4.538607852981445"><ele>37.0</ele><time>2026-04-03T11:57:24Z</time></trkpt><trkpt lat="43.954825394450076" lon="4.538751585823882"><ele>37.0</ele><time>2026-04-03T11:57:25Z</time></trkpt><trkpt lat="43.95482337014973" lon="4.538867249825572"><ele>37.0</ele><time>2026-04-03T11:57:26Z</time></trkpt><trkpt lat="43.95478076626163" lon="4.538964437233116"><ele>37.0</ele><time>2026-04-03T11:57:27Z</time></trkpt><trkpt lat="43.954748500784326" lon="4.539061777082319"><ele>36.833333333333336</ele><time>2026-04-03T11:57:28Z</time></trkpt><trkpt lat="43.954688331503036" lon="4.53911619046424"><ele>36.66666666666667</ele><time>2026-04-03T11:57:29Z</time></trkpt><trkpt lat="43.95465516169152" lon="4.539251507926471"><ele>36.5</ele><time>2026-04-03T11:57:31Z</time></trkpt><trkpt lat="43.954709633468774" lon="4.539382596190551"><ele>36.333333333333336</ele><time>2026-04-03T11:57:33Z</time></trkpt><trkpt lat="43.95475698699396" lon="4.539453004316628"><ele>36.166666666666664</ele><time>2026-04-03T11:57:34Z</time></trkpt><trkpt lat="43.95480096076574" lon="4.539520297157061"><ele>36.0</ele><time>2026-04-03T11:57:35Z</time></trkpt><trkpt lat="43.95481500923366" lon="4.539718935242158"><ele>35.8</ele><time>2026-04-03T11:57:37Z</time></trkpt><trkpt lat="43.95482864100876" lon="4.539844304685979"><ele>35.6</ele><time>2026-04-03T11:57:38Z</time></trkpt><trkpt lat="43.954820821355895" lon="4.539981960222566"><ele>35.4</ele><time>2026-04-03T11:57:39Z</time></trkpt><trkpt lat="43.95482085029274" lon="4.540118722644795"><ele>35.2</ele><time>2026-04-03T11:57:40Z</time></trkpt><trkpt lat="43.95480173034843" lon="4.540257757366808"><ele>35.0</ele><time>2026-04-03T11:57:41Z</time></trkpt><trkpt lat="43.95481071203599" lon="4.540396152489849"><ele>34.8</ele><time>2026-04-03T11:57:42Z</time></trkpt><trkpt lat="43.954802489491954" lon="4.540532549109539"><ele>34.6</ele><time>2026-04-03T11:57:43Z</time></trkpt><trkpt lat="43.954775602482826" lon="4.540666220850714"><ele>34.4</ele><time>2026-04-03T11:57:44Z</time></trkpt><trkpt lat="43.954764950711706" lon="4.5407977267930955"><ele>34.2</ele><time>2026-04-03T11:57:45Z</time></trkpt><trkpt lat="43.95475425408893" lon="4.540929786486625"><ele>34.0</ele><time>2026-04-03T11:57:46Z</time></trkpt><trkpt lat="43.95475775450722" lon="4.541063705972761"><ele>34.0</ele><time>2026-04-03T11:57:47Z</time></trkpt><trkpt lat="43.95474516709317" lon="4.541194405420859"><ele>34.0</ele><time>2026-04-03T11:57:48Z</time></trkpt><trkpt lat="43.95473255688261" lon="4.541326358217467"><ele>34.0</ele><time>2026-04-03T11:57:49Z</time></trkpt><trkpt lat="43.95470859079465" lon="4.541463161198565"><ele>34.0</ele><time>2026-04-03T11:57:50Z</time></trkpt><trkpt lat="43.95469528236699" lon="4.541609387977823"><ele>34.0</ele><time>2026-04-03T11:57:51Z</time></trkpt><trkpt lat="43.954696527990016" lon="4.5417639151258316"><ele>33.0</ele><time>2026-04-03T11:57:52Z</time></trkpt><trkpt lat="43.95467899341006" lon="4.541917790334259"><ele>32.0</ele><time>2026-04-03T11:57:53Z</time></trkpt><trkpt lat="43.95466005511134" lon="4.542109489332684"><ele>31.0</ele><time>2026-04-03T11:57:54Z</time></trkpt><trkpt lat="43.95463864523731" lon="4.542354561710798"><ele>30.0</ele><time>2026-04-03T11:57:55Z</time></trkpt><trkpt lat="43.95461873117852" lon="4.542610070003799"><ele>29.75</ele><time>2026-04-03T11:57:56Z</time></trkpt><trkpt lat="43.954596813730525" lon="4.542827178502908"><ele>29.5</ele><time>2026-04-03T11:57:57Z</time></trkpt><trkpt lat="43.9545860423867" lon="4.543025161606448"><ele>29.25</ele><time>2026-04-03T11:57:58Z</time></trkpt><trkpt lat="43.954572938321185" lon="4.54321943597686"><ele>29.0</ele><time>2026-04-03T11:57:59Z</time></trkpt><trkpt lat="43.9545603651264" lon="4.543427705063408"><ele>29.0</ele><time>2026-04-03T11:58:00Z</time></trkpt><trkpt lat="43.954548961315005" lon="4.543637859012421"><ele>29.0</ele><time>2026-04-03T11:58:01Z</time></trkpt><trkpt lat="43.954536714528366" lon="4.543844279424052"><ele>29.0</ele><time>2026-04-03T11:58:02Z</time></trkpt><trkpt lat="43.95452387601488" lon="4.544042027235264"><ele>29.0</ele><time>2026-04-03T11:58:03Z</time></trkpt><trkpt lat="43.95450615770571" lon="4.5442313760776365"><ele>29.75</ele><time>2026-04-03T11:58:04Z</time></trkpt><trkpt lat="43.95449852416792" lon="4.544412503683512"><ele>30.5</ele><time>2026-04-03T11:58:05Z</time></trkpt><trkpt lat="43.95448982682009" lon="4.544585717566687"><ele>31.25</ele><time>2026-04-03T11:58:06Z</time></trkpt><trkpt lat="43.95448452854608" lon="4.544745752883897"><ele>32.0</ele><time>2026-04-03T11:58:07Z</time></trkpt><trkpt lat="43.95448112719192" lon="4.544889605132015"><ele>32.166666666666664</ele><time>2026-04-03T11:58:08Z</time></trkpt><trkpt lat="43.954479118715895" lon="4.545010011180498"><ele>32.33333333333333</ele><time>2026-04-03T11:58:09Z</time></trkpt><trkpt lat="43.95446989118965" lon="4.545122937807964"><ele>32.5</ele><time>2026-04-03T11:58:10Z</time></trkpt><trkpt lat="43.95446259862389" lon="4.545224481412862"><ele>32.666666666666664</ele><time>2026-04-03T11:58:11Z</time></trkpt><trkpt lat="43.95445056992541" lon="4.545329883885583"><ele>32.833333333333336</ele><time>2026-04-03T11:58:12Z</time></trkpt><trkpt lat="43.95442678937085" lon="4.545452645605436"><ele>33.0</ele><time>2026-04-03T11:58:13Z</time></trkpt><trkpt lat="43.95438926354912" lon="4.545560343548427"><ele>32.6</ele><time>2026-04-03T11:58:14Z</time></trkpt><trkpt lat="43.95435140918239" lon="4.545660140917922"><ele>32.199999999999996</ele><time>2026-04-03T11:58:15Z</time></trkpt><trkpt lat="43.954332918036954" lon="4.545770723368921"><ele>31.8</ele><time>2026-04-03T11:58:16Z</time></trkpt><trkpt lat="43.95433041571897" lon="4.545890738429682"><ele>31.4</ele><time>2026-04-03T11:58:17Z</time></trkpt><trkpt lat="43.95436755218348" lon="4.546028541762942"><ele>31.0</ele><time>2026-04-03T11:58:18Z</time></trkpt><trkpt lat="43.9544524885817" lon="4.546167320688734"><ele>31.0</ele><time>2026-04-03T11:58:19Z</time></trkpt><trkpt lat="43.954537829792066" lon="4.546315983043994"><ele>31.0</ele><time>2026-04-03T11:58:20Z</time></trkpt><trkpt lat="43.95456936152616" lon="4.546516806342063"><ele>31.0</ele><time>2026-04-03T11:58:21Z</time></trkpt><trkpt lat="43.954568358617486" lon="4.5467632902817545"><ele>31.5</ele><time>2026-04-03T11:58:22Z</time></trkpt><trkpt lat="43.95457033929323" lon="4.54705869949997"><ele>32.0</ele><time>2026-04-03T11:58:23Z</time></trkpt><trkpt lat="43.95458611965396" lon="4.547393086969083"><ele>32.0</ele><time>2026-04-03T11:58:24Z</time></trkpt><trkpt lat="43.95459695791041" lon="4.547698546044811"><ele>32.0</ele><time>2026-04-03T11:58:25Z</time></trkpt><trkpt lat="43.95461065506987" lon="4.547989412953979"><ele>32.0</ele><time>2026-04-03T11:58:26Z</time></trkpt><trkpt lat="43.954625333043865" lon="4.54831082215087"><ele>31.666666666666664</ele><time>2026-04-03T11:58:27Z</time></trkpt><trkpt lat="43.95463047137991" lon="4.548617518978947"><ele>31.333333333333336</ele><time>2026-04-03T11:58:28Z</time></trkpt><trkpt lat="43.954645513437576" lon="4.548916394632008"><ele>31.0</ele><time>2026-04-03T11:58:29Z</time></trkpt><trkpt lat="43.95466287412849" lon="4.54920984397968"><ele>31.0</ele><time>2026-04-03T11:58:30Z</time></trkpt><trkpt lat="43.95467593487625" lon="4.54950842688643"><ele>31.0</ele><time>2026-04-03T11:58:31Z</time></trkpt><trkpt lat="43.95468710506661" lon="4.5497982066879885"><ele>31.0</ele><time>2026-04-03T11:58:32Z</time></trkpt><trkpt lat="43.954698619731786" lon="4.550078949868317"><ele>30.333333333333336</ele><time>2026-04-03T11:58:33Z</time></trkpt><trkpt lat="43.95470929646669" lon="4.55034525743383"><ele>29.666666666666664</ele><time>2026-04-03T11:58:34Z</time></trkpt><trkpt lat="43.9547149808181" lon="4.550597551554852"><ele>29.0</ele><time>2026-04-03T11:58:35Z</time></trkpt><trkpt lat="43.954720684016564" lon="4.550819198063722"><ele>28.75</ele><time>2026-04-03T11:58:36Z</time></trkpt><trkpt lat="43.95473121783198" lon="4.551030238879824"><ele>28.5</ele><time>2026-04-03T11:58:37Z</time></trkpt><trkpt lat="43.95473385046389" lon="4.55122777005018"><ele>28.25</ele><time>2026-04-03T11:58:38Z</time></trkpt><trkpt lat="43.95470569345202" lon="4.551405837482539"><ele>28.0</ele><time>2026-04-03T11:58:39Z</time></trkpt><trkpt lat="43.95464294189286" lon="4.551552018065892"><ele>28.25</ele><time>2026-04-03T11:58:40Z</time></trkpt><trkpt lat="43.95459349383238" lon="4.551706945716528"><ele>28.5</ele><time>2026-04-03T11:58:41Z</time></trkpt><trkpt lat="43.954626214727504" lon="4.551887850634341"><ele>28.75</ele><time>2026-04-03T11:58:42Z</time></trkpt><trkpt lat="43.95470913439471" lon="4.552077392207223"><ele>29.0</ele><time>2026-04-03T11:58:43Z</time></trkpt><trkpt lat="43.95478573667154" lon="4.552322514071256"><ele>29.0</ele><time>2026-04-03T11:58:44Z</time></trkpt><trkpt lat="43.95478080640131" lon="4.552642542257563"><ele>29.0</ele><time>2026-04-03T11:58:45Z</time></trkpt><trkpt lat="43.95480711045282" lon="4.5529706280431705"><ele>29.0</ele><time>2026-04-03T11:58:46Z</time></trkpt><trkpt lat="43.954815281582526" lon="4.553286500381156"><ele>29.0</ele><time>2026-04-03T11:58:47Z</time></trkpt><trkpt lat="43.95482629589207" lon="4.553588059514033"><ele>29.0</ele><time>2026-04-03T11:58:48Z</time></trkpt><trkpt lat="43.95483862486967" lon="4.553882414925478"><ele>29.0</ele><time>2026-04-03T11:58:49Z</time></trkpt><trkpt lat="43.95485628704505" lon="4.554180006967399"><ele>29.0</ele><time>2026-04-03T11:58:50Z</time></trkpt><trkpt lat="43.95486323519443" lon="4.5544799489860255"><ele>29.0</ele><time>2026-04-03T11:58:51Z</time></trkpt><trkpt lat="43.954873030567235" lon="4.554781222048975"><ele>28.666666666666664</ele><time>2026-04-03T11:58:52Z</time></trkpt><trkpt lat="43.95488809942147" lon="4.555084031477566"><ele>28.333333333333336</ele><time>2026-04-03T11:58:53Z</time></trkpt><trkpt lat="43.95489612227065" lon="4.555386353240827"><ele>28.0</ele><time>2026-04-03T11:58:54Z</time></trkpt><trkpt lat="43.95491309781847" lon="4.555687479224865"><ele>28.0</ele><time>2026-04-03T11:58:55Z</time></trkpt><trkpt lat="43.95492626899576" lon="4.555983258863537"><ele>28.0</ele><time>2026-04-03T11:58:56Z</time></trkpt><trkpt lat="43.95493436051331" lon="4.55627472576552"><ele>28.0</ele><time>2026-04-03T11:58:57Z</time></trkpt><trkpt lat="43.954946965448684" lon="4.556568928783734"><ele>28.0</ele><time>2026-04-03T11:58:58Z</time></trkpt><trkpt lat="43.95495805459136" lon="4.556878916486084"><ele>28.0</ele><time>2026-04-03T11:58:59Z</time></trkpt><trkpt lat="43.95496590773473" lon="4.557187633960648"><ele>28.0</ele><time>2026-04-03T11:59:00Z</time></trkpt><trkpt lat="43.954978575250216" lon="4.557503280247393"><ele>28.333333333333336</ele><time>2026-04-03T11:59:01Z</time></trkpt><trkpt lat="43.95499352788699" lon="4.557814594633219"><ele>28.666666666666664</ele><time>2026-04-03T11:59:02Z</time></trkpt><trkpt lat="43.95500482612344" lon="4.558126215615481"><ele>29.0</ele><time>2026-04-03T11:59:03Z</time></trkpt><trkpt lat="43.9550187923499" lon="4.558437491337976"><ele>29.333333333333332</ele><time>2026-04-03T11:59:04Z</time></trkpt><trkpt lat="43.955033077410924" lon="4.558746949654309"><ele>29.666666666666664</ele><time>2026-04-03T11:59:05Z</time></trkpt><trkpt lat="43.95504597696558" lon="4.559055194080561"><ele>30.0</ele><time>2026-04-03T11:59:06Z</time></trkpt><trkpt lat="43.95506016001897" lon="4.559360503828493"><ele>30.333333333333336</ele><time>2026-04-03T11:59:07Z</time></trkpt><trkpt lat="43.95506886458288" lon="4.559635597383204"><ele>30.666666666666668</ele><time>2026-04-03T11:59:08Z</time></trkpt><trkpt lat="43.95507684365119" lon="4.559896756836581"><ele>31.0</ele><time>2026-04-03T11:59:09Z</time></trkpt><trkpt lat="43.955084066748924" lon="4.560144080829743"><ele>31.0</ele><time>2026-04-03T11:59:10Z</time></trkpt><trkpt lat="43.95509156796486" lon="4.560391741148927"><ele>31.0</ele><time>2026-04-03T11:59:11Z</time></trkpt><trkpt lat="43.95509947157118" lon="4.560640508352958"><ele>31.0</ele><time>2026-04-03T11:59:12Z</time></trkpt><trkpt lat="43.95510620130126" lon="4.560888583813829"><ele>31.0</ele><time>2026-04-03T11:59:13Z</time></trkpt><trkpt lat="43.95513210864273" lon="4.561170529305701"><ele>31.0</ele><time>2026-04-03T11:59:14Z</time></trkpt><trkpt lat="43.95514143855435" lon="4.561428213848791"><ele>31.0</ele><time>2026-04-03T11:59:15Z</time></trkpt><trkpt lat="43.95513573548029" lon="4.561674349443251"><ele>31.333333333333336</ele><time>2026-04-03T11:59:16Z</time></trkpt><trkpt lat="43.955144407033586" lon="4.561906666392666"><ele>31.666666666666664</ele><time>2026-04-03T11:59:17Z</time></trkpt><trkpt lat="43.95515232288538" lon="4.562118737595921"><ele>32.0</ele><time>2026-04-03T11:59:18Z</time></trkpt><trkpt lat="43.95516014400423" lon="4.562328271066602"><ele>32.0</ele><time>2026-04-03T11:59:19Z</time></trkpt><trkpt lat="43.95516819895891" lon="4.562536288259288"><ele>32.0</ele><time>2026-04-03T11:59:20Z</time></trkpt><trkpt lat="43.9551766063881" lon="4.56274585832051"><ele>32.0</ele><time>2026-04-03T11:59:21Z</time></trkpt><trkpt lat="43.95518490175858" lon="4.562952635123812"><ele>32.0</ele><time>2026-04-03T11:59:22Z</time></trkpt><trkpt lat="43.955192622698995" lon="4.563145093249727"><ele>32.0</ele><time>2026-04-03T11:59:23Z</time></trkpt><trkpt lat="43.955199653431684" lon="4.563320346697469"><ele>32.0</ele><time>2026-04-03T11:59:24Z</time></trkpt><trkpt lat="43.95520630577284" lon="4.563485278416477"><ele>32.0</ele><time>2026-04-03T11:59:25Z</time></trkpt><trkpt lat="43.955212558226016" lon="4.563640003557999"><ele>31.75</ele><time>2026-04-03T11:59:26Z</time></trkpt><trkpt lat="43.95521855674961" lon="4.563788444868265"><ele>31.5</ele><time>2026-04-03T11:59:27Z</time></trkpt><trkpt lat="43.95522519700349" lon="4.563952766649128"><ele>31.25</ele><time>2026-04-03T11:59:28Z</time></trkpt><trkpt lat="43.955232229878746" lon="4.564126804309129"><ele>31.0</ele><time>2026-04-03T11:59:29Z</time></trkpt><trkpt lat="43.95525571729074" lon="4.564295484352518"><ele>31.0</ele><time>2026-04-03T11:59:30Z</time></trkpt><trkpt lat="43.95526005929515" lon="4.5644629885353245"><ele>31.0</ele><time>2026-04-03T11:59:31Z</time></trkpt><trkpt lat="43.955265425761304" lon="4.564632579414281"><ele>31.0</ele><time>2026-04-03T11:59:32Z</time></trkpt><trkpt lat="43.955275686104166" lon="4.564803303541592"><ele>31.0</ele><time>2026-04-03T11:59:33Z</time></trkpt><trkpt lat="43.955266839718675" lon="4.564972826243483"><ele>30.4</ele><time>2026-04-03T11:59:34Z</time></trkpt><trkpt lat="43.95527280884719" lon="4.565129451010046"><ele>29.8</ele><time>2026-04-03T11:59:35Z</time></trkpt><trkpt lat="43.9552784607926" lon="4.565277753135027"><ele>29.199999999999996</ele><time>2026-04-03T11:59:36Z</time></trkpt><trkpt lat="43.95528379107908" lon="4.5654176152015085"><ele>28.599999999999998</ele><time>2026-04-03T11:59:37Z</time></trkpt><trkpt lat="43.95529924907758" lon="4.565558725113244"><ele>28.0</ele><time>2026-04-03T11:59:38Z</time></trkpt><trkpt lat="43.95529503793495" lon="4.56570192392032"><ele>27.799999999999997</ele><time>2026-04-03T11:59:39Z</time></trkpt><trkpt lat="43.95528034216792" lon="4.565846105340748"><ele>27.599999999999998</ele><time>2026-04-03T11:59:40Z</time></trkpt><trkpt lat="43.95524321011978" lon="4.565983609783688"><ele>27.400000000000002</ele><time>2026-04-03T11:59:41Z</time></trkpt><trkpt lat="43.955195013178496" lon="4.566110607241821"><ele>27.200000000000003</ele><time>2026-04-03T11:59:42Z</time></trkpt><trkpt lat="43.955129704648456" lon="4.56622342291439"><ele>27.0</ele><time>2026-04-03T11:59:43Z</time></trkpt><trkpt lat="43.95505213383001" lon="4.566318311251284"><ele>27.0</ele><time>2026-04-03T11:59:44Z</time></trkpt><trkpt lat="43.954972936886556" lon="4.566394941895731"><ele>27.0</ele><time>2026-04-03T11:59:45Z</time></trkpt><trkpt lat="43.954890849987684" lon="4.566454832029781"><ele>27.0</ele><time>2026-04-03T11:59:46Z</time></trkpt><trkpt lat="43.95481062050214" lon="4.566503590378632"><ele>27.0</ele><time>2026-04-03T11:59:47Z</time></trkpt><trkpt lat="43.95473800093784" lon="4.566551045538295"><ele>27.0</ele><time>2026-04-03T11:59:48Z</time></trkpt><trkpt lat="43.95467830222468" lon="4.566603222061484"><ele>27.0</ele><time>2026-04-03T11:59:49Z</time></trkpt><trkpt lat="43.954585871629874" lon="4.5667296957421675"><ele>27.0</ele><time>2026-04-03T11:59:51Z</time></trkpt><trkpt lat="43.95454040185029" lon="4.566815071435963"><ele>27.0</ele><time>2026-04-03T11:59:52Z</time></trkpt><trkpt lat="43.954479922746216" lon="4.5668812592023995"><ele>27.0</ele><time>2026-04-03T11:59:53Z</time></trkpt><trkpt lat="43.95442041911082" lon="4.566947848713236"><ele>27.0</ele><time>2026-04-03T11:59:54Z</time></trkpt><trkpt lat="43.95437990195246" lon="4.567037248961967"><ele>27.0</ele><time>2026-04-03T11:59:55Z</time></trkpt><trkpt lat="43.954419953485946" lon="4.567145356774859"><ele>27.0</ele><time>2026-04-03T11:59:56Z</time></trkpt><trkpt lat="43.954490514015816" lon="4.567209577007691"><ele>27.5</ele><time>2026-04-03T11:59:57Z</time></trkpt><trkpt lat="43.95457910255906" lon="4.56721545920535"><ele>28.0</ele><time>2026-04-03T11:59:58Z</time></trkpt><trkpt lat="43.95468299703762" lon="4.56719417290503"><ele>28.5</ele><time>2026-04-03T11:59:59Z</time></trkpt><trkpt lat="43.95481880458692" lon="4.567225660514317"><ele>29.0</ele><time>2026-04-03T12:00:00Z</time></trkpt><trkpt lat="43.954981790030615" lon="4.5672960407442105"><ele>29.0</ele><time>2026-04-03T12:00:01Z</time></trkpt><trkpt lat="43.9551582741675" lon="4.567377035451255"><ele>29.0</ele><time>2026-04-03T12:00:02Z</time></trkpt><trkpt lat="43.95535381971579" lon="4.567464507433726"><ele>29.0</ele><time>2026-04-03T12:00:03Z</time></trkpt><trkpt lat="43.95555950443737" lon="4.567553633483499"><ele>29.0</ele><time>2026-04-03T12:00:04Z</time></trkpt><trkpt lat="43.955760460927564" lon="4.567639236161167"><ele>29.0</ele><time>2026-04-03T12:00:05Z</time></trkpt><trkpt lat="43.955959156441146" lon="4.56772403847856"><ele>29.0</ele><time>2026-04-03T12:00:06Z</time></trkpt><trkpt lat="43.956153144553376" lon="4.567811358778415"><ele>29.333333333333332</ele><time>2026-04-03T12:00:07Z</time></trkpt><trkpt lat="43.95634573345883" lon="4.56789381160889"><ele>29.666666666666664</ele><time>2026-04-03T12:00:08Z</time></trkpt><trkpt lat="43.95653639664322" lon="4.567971902075842"><ele>30.0</ele><time>2026-04-03T12:00:09Z</time></trkpt><trkpt lat="43.95671993359845" lon="4.568053785810605"><ele>31.0</ele><time>2026-04-03T12:00:10Z</time></trkpt><trkpt lat="43.95690685296751" lon="4.568140963096102"><ele>32.0</ele><time>2026-04-03T12:00:11Z</time></trkpt><trkpt lat="43.957089618480595" lon="4.568223746017157"><ele>33.0</ele><time>2026-04-03T12:00:12Z</time></trkpt><trkpt lat="43.95727564074119" lon="4.568302378286955"><ele>33.0</ele><time>2026-04-03T12:00:13Z</time></trkpt><trkpt lat="43.957461129422306" lon="4.568378035857572"><ele>33.0</ele><time>2026-04-03T12:00:14Z</time></trkpt><trkpt lat="43.95764907408217" lon="4.568460321268468"><ele>33.0</ele><time>2026-04-03T12:00:15Z</time></trkpt><trkpt lat="43.95783215175757" lon="4.568547783342223"><ele>33.0</ele><time>2026-04-03T12:00:16Z</time></trkpt><trkpt lat="43.95801424229819" lon="4.5686247636152455"><ele>33.0</ele><time>2026-04-03T12:00:17Z</time></trkpt><trkpt lat="43.9581987209441" lon="4.568700064659689"><ele>33.0</ele><time>2026-04-03T12:00:18Z</time></trkpt><trkpt lat="43.95838811755568" lon="4.568782020352156"><ele>34.0</ele><time>2026-04-03T12:00:19Z</time></trkpt><trkpt lat="43.95858595371535" lon="4.568864039384816"><ele>35.0</ele><time>2026-04-03T12:00:20Z</time></trkpt><trkpt lat="43.95885583487198" lon="4.568991130832285"><ele>35.0</ele><time>2026-04-03T12:00:21Z</time></trkpt><trkpt lat="43.95909591086911" lon="4.569099906045396"><ele>35.0</ele><time>2026-04-03T12:00:22Z</time></trkpt><trkpt lat="43.959329992823996" lon="4.569209281212466"><ele>35.0</ele><time>2026-04-03T12:00:23Z</time></trkpt><trkpt lat="43.95955684299694" lon="4.569311683984149"><ele>35.0</ele><time>2026-04-03T12:00:24Z</time></trkpt><trkpt lat="43.95978154529997" lon="4.569409981871541"><ele>35.0</ele><time>2026-04-03T12:00:25Z</time></trkpt><trkpt lat="43.960006249146524" lon="4.569506578839425"><ele>35.0</ele><time>2026-04-03T12:00:26Z</time></trkpt><trkpt lat="43.96026057171298" lon="4.569619556664664"><ele>35.0</ele><time>2026-04-03T12:00:27Z</time></trkpt><trkpt lat="43.96049437357024" lon="4.569722176900967"><ele>35.0</ele><time>2026-04-03T12:00:28Z</time></trkpt><trkpt lat="43.96072608002266" lon="4.5698270865843735"><ele>35.0</ele><time>2026-04-03T12:00:29Z</time></trkpt><trkpt lat="43.960948665301025" lon="4.569928332210493"><ele>35.0</ele><time>2026-04-03T12:00:30Z</time></trkpt><trkpt lat="43.961168438470516" lon="4.57002367420057"><ele>35.0</ele><time>2026-04-03T12:00:31Z</time></trkpt><trkpt lat="43.96138482342741" lon="4.5701149250513895"><ele>35.0</ele><time>2026-04-03T12:00:32Z</time></trkpt><trkpt lat="43.96159550134184" lon="4.570203820826682"><ele>35.0</ele><time>2026-04-03T12:00:33Z</time></trkpt><trkpt lat="43.961803428922885" lon="4.570297378254045"><ele>35.0</ele><time>2026-04-03T12:00:34Z</time></trkpt><trkpt lat="43.96200889419367" lon="4.570394364663935"><ele>35.0</ele><time>2026-04-03T12:00:35Z</time></trkpt><trkpt lat="43.96221078545024" lon="4.570484197260559"><ele>35.0</ele><time>2026-04-03T12:00:36Z</time></trkpt><trkpt lat="43.96240727257803" lon="4.570570248662259"><ele>35.666666666666664</ele><time>2026-04-03T12:00:37Z</time></trkpt><trkpt lat="43.96260203949943" lon="4.570654633192321"><ele>36.333333333333336</ele><time>2026-04-03T12:00:38Z</time></trkpt><trkpt lat="43.96279674859389" lon="4.570736691209836"><ele>37.0</ele><time>2026-04-03T12:00:39Z</time></trkpt><trkpt lat="43.9629910630347" lon="4.5708231134128505"><ele>37.0</ele><time>2026-04-03T12:00:40Z</time></trkpt><trkpt lat="43.963191284430856" lon="4.570914548232417"><ele>37.0</ele><time>2026-04-03T12:00:41Z</time></trkpt><trkpt lat="43.963404893835204" lon="4.571011611977329"><ele>37.0</ele><time>2026-04-03T12:00:42Z</time></trkpt><trkpt lat="43.96362128250912" lon="4.57110541903996"><ele>36.66666666666667</ele><time>2026-04-03T12:00:43Z</time></trkpt><trkpt lat="43.96383099306174" lon="4.571202463347687"><ele>36.333333333333336</ele><time>2026-04-03T12:00:44Z</time></trkpt><trkpt lat="43.96404667333805" lon="4.571294551324617"><ele>36.0</ele><time>2026-04-03T12:00:45Z</time></trkpt><trkpt lat="43.96426713419131" lon="4.571389368737046"><ele>37.0</ele><time>2026-04-03T12:00:46Z</time></trkpt><trkpt lat="43.96448753119153" lon="4.571492490610741"><ele>38.0</ele><time>2026-04-03T12:00:47Z</time></trkpt><trkpt lat="43.96471190638284" lon="4.571596059250472"><ele>38.0</ele><time>2026-04-03T12:00:48Z</time></trkpt><trkpt lat="43.96494038940814" lon="4.571696237110057"><ele>38.0</ele><time>2026-04-03T12:00:49Z</time></trkpt><trkpt lat="43.96516522757932" lon="4.571794762968974"><ele>39.5</ele><time>2026-04-03T12:00:50Z</time></trkpt><trkpt lat="43.96539080714775" lon="4.571898841612243"><ele>41.0</ele><time>2026-04-03T12:00:51Z</time></trkpt><trkpt lat="43.96561082910161" lon="4.572011684299568"><ele>41.0</ele><time>2026-04-03T12:00:52Z</time></trkpt><trkpt lat="43.96582743901623" lon="4.572127475227707"><ele>41.0</ele><time>2026-04-03T12:00:53Z</time></trkpt><trkpt lat="43.96603742284564" lon="4.572249274865274"><ele>43.0</ele><time>2026-04-03T12:00:54Z</time></trkpt><trkpt lat="43.96624775244117" lon="4.572366893065983"><ele>45.0</ele><time>2026-04-03T12:00:55Z</time></trkpt><trkpt lat="43.96647104220998" lon="4.5724699518088165"><ele>45.0</ele><time>2026-04-03T12:00:56Z</time></trkpt><trkpt lat="43.96668350550226" lon="4.572602980129351"><ele>45.0</ele><time>2026-04-03T12:00:57Z</time></trkpt><trkpt lat="43.966900287805764" lon="4.572743581710132"><ele>45.5</ele><time>2026-04-03T12:00:58Z</time></trkpt><trkpt lat="43.96710823134056" lon="4.5729047621258445"><ele>46.0</ele><time>2026-04-03T12:00:59Z</time></trkpt><trkpt lat="43.96731732133888" lon="4.57305823878427"><ele>46.0</ele><time>2026-04-03T12:01:00Z</time></trkpt><trkpt lat="43.96751891413491" lon="4.573236036175525"><ele>46.0</ele><time>2026-04-03T12:01:01Z</time></trkpt><trkpt lat="43.96772829494213" lon="4.573396550705987"><ele>46.0</ele><time>2026-04-03T12:01:02Z</time></trkpt><trkpt lat="43.96793878576465" lon="4.57353533783076"><ele>46.0</ele><time>2026-04-03T12:01:03Z</time></trkpt><trkpt lat="43.968156503241104" lon="4.5736696966233"><ele>48.5</ele><time>2026-04-03T12:01:04Z</time></trkpt><trkpt lat="43.96837307626821" lon="4.573788813200642"><ele>51.0</ele><time>2026-04-03T12:01:05Z</time></trkpt><trkpt lat="43.96858734645842" lon="4.573919600594562"><ele>51.0</ele><time>2026-04-03T12:01:06Z</time></trkpt><trkpt lat="43.96881391389534" lon="4.573993450113446"><ele>51.0</ele><time>2026-04-03T12:01:07Z</time></trkpt><trkpt lat="43.96903645002452" lon="4.574096352231663"><ele>51.0</ele><time>2026-04-03T12:01:08Z</time></trkpt><trkpt lat="43.96925594860252" lon="4.574202245411493"><ele>51.0</ele><time>2026-04-03T12:01:09Z</time></trkpt><trkpt lat="43.96947702384497" lon="4.574308304282992"><ele>51.0</ele><time>2026-04-03T12:01:10Z</time></trkpt><trkpt lat="43.96969846595396" lon="4.574414420141673"><ele>51.0</ele><time>2026-04-03T12:01:11Z</time></trkpt><trkpt lat="43.96991782355044" lon="4.574522306560552"><ele>51.5</ele><time>2026-04-03T12:01:12Z</time></trkpt><trkpt lat="43.970135622099484" lon="4.574628904003841"><ele>52.0</ele><time>2026-04-03T12:01:13Z</time></trkpt><trkpt lat="43.970351914662764" lon="4.574738332065561"><ele>52.0</ele><time>2026-04-03T12:01:14Z</time></trkpt><trkpt lat="43.970568995509424" lon="4.574848272205019"><ele>52.0</ele><time>2026-04-03T12:01:15Z</time></trkpt><trkpt lat="43.97078663495408" lon="4.57495468143031"><ele>52.5</ele><time>2026-04-03T12:01:16Z</time></trkpt><trkpt lat="43.97100683309153" lon="4.575058778363867"><ele>53.0</ele><time>2026-04-03T12:01:17Z</time></trkpt><trkpt lat="43.9712254971174" lon="4.5751596259319625"><ele>53.0</ele><time>2026-04-03T12:01:18Z</time></trkpt><trkpt lat="43.97144288287852" lon="4.575264730412129"><ele>53.0</ele><time>2026-04-03T12:01:19Z</time></trkpt><trkpt lat="43.97165802258252" lon="4.5753726392496"><ele>54.0</ele><time>2026-04-03T12:01:20Z</time></trkpt><trkpt lat="43.97187152181323" lon="4.57547411694423"><ele>55.0</ele><time>2026-04-03T12:01:21Z</time></trkpt><trkpt lat="43.97208888420296" lon="4.575572721953407"><ele>55.0</ele><time>2026-04-03T12:01:22Z</time></trkpt><trkpt lat="43.97230967266016" lon="4.575682410130467"><ele>55.0</ele><time>2026-04-03T12:01:23Z</time></trkpt><trkpt lat="43.9725415847935" lon="4.575810212777508"><ele>54.5</ele><time>2026-04-03T12:01:24Z</time></trkpt><trkpt lat="43.97277602146698" lon="4.575926656970228"><ele>54.0</ele><time>2026-04-03T12:01:25Z</time></trkpt><trkpt lat="43.97301430026745" lon="4.5760334381254975"><ele>54.0</ele><time>2026-04-03T12:01:26Z</time></trkpt><trkpt lat="43.973244216067286" lon="4.576141613835116"><ele>54.0</ele><time>2026-04-03T12:01:27Z</time></trkpt><trkpt lat="43.97346777041544" lon="4.576252904473937"><ele>54.5</ele><time>2026-04-03T12:01:28Z</time></trkpt><trkpt lat="43.97369137367959" lon="4.57636468175625"><ele>55.0</ele><time>2026-04-03T12:01:29Z</time></trkpt><trkpt lat="43.9739122659295" lon="4.576473519767323"><ele>55.0</ele><time>2026-04-03T12:01:30Z</time></trkpt><trkpt lat="43.97413254960261" lon="4.576580501908495"><ele>55.0</ele><time>2026-04-03T12:01:31Z</time></trkpt><trkpt lat="43.97435270553783" lon="4.576684342194655"><ele>55.5</ele><time>2026-04-03T12:01:32Z</time></trkpt><trkpt lat="43.974571921756436" lon="4.5767865315948155"><ele>56.0</ele><time>2026-04-03T12:01:33Z</time></trkpt><trkpt lat="43.97479157600476" lon="4.576872160856956"><ele>56.0</ele><time>2026-04-03T12:01:34Z</time></trkpt><trkpt lat="43.97501894067795" lon="4.576927908918068"><ele>56.0</ele><time>2026-04-03T12:01:35Z</time></trkpt><trkpt lat="43.97525940115493" lon="4.576933805564624"><ele>56.5</ele><time>2026-04-03T12:01:36Z</time></trkpt><trkpt lat="43.97550039778701" lon="4.576886169960496"><ele>57.0</ele><time>2026-04-03T12:01:37Z</time></trkpt><trkpt lat="43.97574239371276" lon="4.576805199590464"><ele>58.0</ele><time>2026-04-03T12:01:38Z</time></trkpt><trkpt lat="43.97598154256148" lon="4.576705687564015"><ele>59.0</ele><time>2026-04-03T12:01:39Z</time></trkpt><trkpt lat="43.976215651134" lon="4.576569887326897"><ele>59.0</ele><time>2026-04-03T12:01:40Z</time></trkpt><trkpt lat="43.97644408408151" lon="4.5764100463437485"><ele>59.0</ele><time>2026-04-03T12:01:41Z</time></trkpt><trkpt lat="43.976682668921924" lon="4.576235280389028"><ele>59.0</ele><time>2026-04-03T12:01:42Z</time></trkpt><trkpt lat="43.97692685878147" lon="4.57608023171807"><ele>59.0</ele><time>2026-04-03T12:01:43Z</time></trkpt><trkpt lat="43.977169199295226" lon="4.575938619609888"><ele>59.0</ele><time>2026-04-03T12:01:44Z</time></trkpt><trkpt lat="43.9774136108064" lon="4.575804002068035"><ele>59.0</ele><time>2026-04-03T12:01:45Z</time></trkpt><trkpt lat="43.977655539728" lon="4.575676522882942"><ele>59.0</ele><time>2026-04-03T12:01:46Z</time></trkpt><trkpt lat="43.97789309008296" lon="4.5755567599543285"><ele>59.0</ele><time>2026-04-03T12:01:47Z</time></trkpt><trkpt lat="43.97812882947568" lon="4.575432963107497"><ele>62.5</ele><time>2026-04-03T12:01:48Z</time></trkpt><trkpt lat="43.978362308283764" lon="4.575299335304106"><ele>66.0</ele><time>2026-04-03T12:01:49Z</time></trkpt><trkpt lat="43.97859284464209" lon="4.575163767566211"><ele>66.0</ele><time>2026-04-03T12:01:50Z</time></trkpt><trkpt lat="43.97882500895295" lon="4.575037012760577"><ele>66.0</ele><time>2026-04-03T12:01:51Z</time></trkpt><trkpt lat="43.97906252660863" lon="4.574903198015878"><ele>72.5</ele><time>2026-04-03T12:01:52Z</time></trkpt><trkpt lat="43.97927520670606" lon="4.574775732653707"><ele>79.0</ele><time>2026-04-03T12:01:53Z</time></trkpt><trkpt lat="43.979476276123386" lon="4.574648579277036"><ele>79.0</ele><time>2026-04-03T12:01:54Z</time></trkpt><trkpt lat="43.979660229198274" lon="4.574542511915813"><ele>79.0</ele><time>2026-04-03T12:01:55Z</time></trkpt><trkpt lat="43.97985329677081" lon="4.574434270689536"><ele>79.0</ele><time>2026-04-03T12:01:56Z</time></trkpt><trkpt lat="43.980073351174994" lon="4.574325484893479"><ele>76.0</ele><time>2026-04-03T12:01:57Z</time></trkpt><trkpt lat="43.98031030528781" lon="4.5742425400050095"><ele>73.0</ele><time>2026-04-03T12:01:58Z</time></trkpt><trkpt lat="43.980565435208355" lon="4.574186359599987"><ele>73.0</ele><time>2026-04-03T12:01:59Z</time></trkpt><trkpt lat="43.98080725986896" lon="4.5741652905321155"><ele>73.0</ele><time>2026-04-03T12:02:00Z</time></trkpt><trkpt lat="43.981043817067764" lon="4.574185463972222"><ele>76.0</ele><time>2026-04-03T12:02:01Z</time></trkpt><trkpt lat="43.98127235034053" lon="4.574257429170846"><ele>79.0</ele><time>2026-04-03T12:02:02Z</time></trkpt><trkpt lat="43.98149408774942" lon="4.574358669700224"><ele>80.0</ele><time>2026-04-03T12:02:03Z</time></trkpt><trkpt lat="43.98170472583217" lon="4.574472047878407"><ele>81.0</ele><time>2026-04-03T12:02:04Z</time></trkpt><trkpt lat="43.98190452706176" lon="4.574610772772976"><ele>82.0</ele><time>2026-04-03T12:02:05Z</time></trkpt><trkpt lat="43.98208878792946" lon="4.574788957585448"><ele>82.0</ele><time>2026-04-03T12:02:06Z</time></trkpt><trkpt lat="43.98225767132147" lon="4.574996867523101"><ele>82.0</ele><time>2026-04-03T12:02:07Z</time></trkpt><trkpt lat="43.982435899413034" lon="4.5752018505600915"><ele>81.0</ele><time>2026-04-03T12:02:08Z</time></trkpt><trkpt lat="43.98262961286972" lon="4.575398685463398"><ele>80.0</ele><time>2026-04-03T12:02:09Z</time></trkpt><trkpt lat="43.982818807160804" lon="4.575599766802163"><ele>80.0</ele><time>2026-04-03T12:02:10Z</time></trkpt><trkpt lat="43.98299707382815" lon="4.575806796993878"><ele>80.0</ele><time>2026-04-03T12:02:11Z</time></trkpt><trkpt lat="43.98317941630736" lon="4.576005272947031"><ele>81.5</ele><time>2026-04-03T12:02:12Z</time></trkpt><trkpt lat="43.983372274975366" lon="4.576195975366506"><ele>83.0</ele><time>2026-04-03T12:02:13Z</time></trkpt><trkpt lat="43.983578890868756" lon="4.57636576680949"><ele>83.0</ele><time>2026-04-03T12:02:14Z</time></trkpt><trkpt lat="43.98380259652517" lon="4.576498070824326"><ele>83.0</ele><time>2026-04-03T12:02:15Z</time></trkpt><trkpt lat="43.98402405297217" lon="4.5766286993230585"><ele>84.0</ele><time>2026-04-03T12:02:16Z</time></trkpt><trkpt lat="43.98423385306403" lon="4.576791067056761"><ele>85.0</ele><time>2026-04-03T12:02:17Z</time></trkpt><trkpt lat="43.984441135911545" lon="4.576969171555536"><ele>85.0</ele><time>2026-04-03T12:02:18Z</time></trkpt><trkpt lat="43.98463570061281" lon="4.577174372808309"><ele>85.0</ele><time>2026-04-03T12:02:19Z</time></trkpt><trkpt lat="43.98484266974649" lon="4.57734264700352"><ele>92.0</ele><time>2026-04-03T12:02:20Z</time></trkpt><trkpt lat="43.98503401583258" lon="4.577532972133215"><ele>99.0</ele><time>2026-04-03T12:02:21Z</time></trkpt><trkpt lat="43.98522996532469" lon="4.577708878935321"><ele>94.5</ele><time>2026-04-03T12:02:22Z</time></trkpt><trkpt lat="43.98543406534349" lon="4.577876488745044"><ele>90.0</ele><time>2026-04-03T12:02:23Z</time></trkpt><trkpt lat="43.98564174640411" lon="4.578034780852811"><ele>92.0</ele><time>2026-04-03T12:02:24Z</time></trkpt><trkpt lat="43.98586927849444" lon="4.578148959080877"><ele>94.0</ele><time>2026-04-03T12:02:25Z</time></trkpt><trkpt lat="43.98610708041008" lon="4.5782137424375895"><ele>94.0</ele><time>2026-04-03T12:02:26Z</time></trkpt><trkpt lat="43.98634324628896" lon="4.578254460073307"><ele>94.0</ele><time>2026-04-03T12:02:27Z</time></trkpt><trkpt lat="43.986578028159464" lon="4.578267933878761"><ele>94.5</ele><time>2026-04-03T12:02:28Z</time></trkpt><trkpt lat="43.9868068134384" lon="4.5782390635665875"><ele>95.0</ele><time>2026-04-03T12:02:29Z</time></trkpt><trkpt lat="43.98703651312822" lon="4.578182389481772"><ele>95.0</ele><time>2026-04-03T12:02:30Z</time></trkpt><trkpt lat="43.98727475981692" lon="4.578117791057067"><ele>95.0</ele><time>2026-04-03T12:02:31Z</time></trkpt><trkpt lat="43.98752459788625" lon="4.578069155385691"><ele>94.5</ele><time>2026-04-03T12:02:32Z</time></trkpt><trkpt lat="43.98777208633481" lon="4.578028166335378"><ele>94.0</ele><time>2026-04-03T12:02:33Z</time></trkpt><trkpt lat="43.98800779627682" lon="4.577973987805925"><ele>94.0</ele><time>2026-04-03T12:02:34Z</time></trkpt><trkpt lat="43.98824063272714" lon="4.577898938167092"><ele>94.0</ele><time>2026-04-03T12:02:35Z</time></trkpt><trkpt lat="43.98848402351087" lon="4.577799048019111"><ele>100.0</ele><time>2026-04-03T12:02:36Z</time></trkpt><trkpt lat="43.98872643415804" lon="4.577657063591877"><ele>106.0</ele><time>2026-04-03T12:02:37Z</time></trkpt><trkpt lat="43.9889526394549" lon="4.577447393883476"><ele>106.0</ele><time>2026-04-03T12:02:38Z</time></trkpt><trkpt lat="43.98917027138676" lon="4.577230321354991"><ele>106.0</ele><time>2026-04-03T12:02:39Z</time></trkpt><trkpt lat="43.989395412421146" lon="4.5770263915900795"><ele>106.5</ele><time>2026-04-03T12:02:40Z</time></trkpt><trkpt lat="43.98963261633403" lon="4.5768203182906015"><ele>107.0</ele><time>2026-04-03T12:02:41Z</time></trkpt><trkpt lat="43.9898747814773" lon="4.5766219594624875"><ele>108.0</ele><time>2026-04-03T12:02:42Z</time></trkpt><trkpt lat="43.990137740756005" lon="4.576460713843804"><ele>109.0</ele><time>2026-04-03T12:02:43Z</time></trkpt><trkpt lat="43.990406425197946" lon="4.5763884601790075"><ele>109.0</ele><time>2026-04-03T12:02:44Z</time></trkpt><trkpt lat="43.99067664493235" lon="4.576355454660936"><ele>109.0</ele><time>2026-04-03T12:02:45Z</time></trkpt><trkpt lat="43.990942986636" lon="4.57635416192098"><ele>110.5</ele><time>2026-04-03T12:02:46Z</time></trkpt><trkpt lat="43.99121029817447" lon="4.576364044124383"><ele>112.0</ele><time>2026-04-03T12:02:47Z</time></trkpt><trkpt lat="43.99148144701234" lon="4.5764205964305456"><ele>111.0</ele><time>2026-04-03T12:02:48Z</time></trkpt><trkpt lat="43.99174026592611" lon="4.576539686188063"><ele>110.0</ele><time>2026-04-03T12:02:49Z</time></trkpt><trkpt lat="43.991996630501276" lon="4.576644980632136"><ele>110.0</ele><time>2026-04-03T12:02:50Z</time></trkpt><trkpt lat="43.992256630579305" lon="4.576730737274396"><ele>110.0</ele><time>2026-04-03T12:02:51Z</time></trkpt><trkpt lat="43.99252052820245" lon="4.576775005305355"><ele>112.0</ele><time>2026-04-03T12:02:52Z</time></trkpt><trkpt lat="43.99279602560011" lon="4.576743564745299"><ele>114.0</ele><time>2026-04-03T12:02:53Z</time></trkpt><trkpt lat="43.993069729339865" lon="4.576661964152814"><ele>114.0</ele><time>2026-04-03T12:02:54Z</time></trkpt><trkpt lat="43.99333291004727" lon="4.576616078353863"><ele>114.0</ele><time>2026-04-03T12:02:55Z</time></trkpt><trkpt lat="43.993580739500935" lon="4.576560322800578"><ele>116.5</ele><time>2026-04-03T12:02:56Z</time></trkpt><trkpt lat="43.99381841993275" lon="4.576396362380094"><ele>119.0</ele><time>2026-04-03T12:02:57Z</time></trkpt><trkpt lat="43.994070356263116" lon="4.576315235757471"><ele>118.0</ele><time>2026-04-03T12:02:58Z</time></trkpt><trkpt lat="43.99433889932525" lon="4.576311119689793"><ele>117.0</ele><time>2026-04-03T12:02:59Z</time></trkpt><trkpt lat="43.99460531160111" lon="4.576346581039924"><ele>117.0</ele><time>2026-04-03T12:03:00Z</time></trkpt><trkpt lat="43.99485426335658" lon="4.57640582332825"><ele>117.0</ele><time>2026-04-03T12:03:01Z</time></trkpt><trkpt lat="43.99509758171159" lon="4.5765012786101265"><ele>122.0</ele><time>2026-04-03T12:03:02Z</time></trkpt><trkpt lat="43.99531856094148" lon="4.576642561127568"><ele>127.0</ele><time>2026-04-03T12:03:03Z</time></trkpt><trkpt lat="43.995507602851966" lon="4.576799418945323"><ele>127.0</ele><time>2026-04-03T12:03:04Z</time></trkpt><trkpt lat="43.99568928209386" lon="4.576972132127656"><ele>127.0</ele><time>2026-04-03T12:03:05Z</time></trkpt><trkpt lat="43.99586111471133" lon="4.577158878262649"><ele>127.0</ele><time>2026-04-03T12:03:06Z</time></trkpt><trkpt lat="43.996018482151925" lon="4.577375738258479"><ele>126.0</ele><time>2026-04-03T12:03:07Z</time></trkpt><trkpt lat="43.99616341431188" lon="4.577609577703049"><ele>125.0</ele><time>2026-04-03T12:03:08Z</time></trkpt><trkpt lat="43.996307821674606" lon="4.5778297218203"><ele>124.0</ele><time>2026-04-03T12:03:09Z</time></trkpt><trkpt lat="43.99644311446062" lon="4.578030963952803"><ele>124.0</ele><time>2026-04-03T12:03:10Z</time></trkpt><trkpt lat="43.99658235163676" lon="4.578241660952265"><ele>124.0</ele><time>2026-04-03T12:03:11Z</time></trkpt><trkpt lat="43.996721738706164" lon="4.578463904491847"><ele>124.0</ele><time>2026-04-03T12:03:12Z</time></trkpt><trkpt lat="43.99684976192568" lon="4.578671174452217"><ele>123.66666666666667</ele><time>2026-04-03T12:03:13Z</time></trkpt><trkpt lat="43.99697516487485" lon="4.578873839736879"><ele>123.33333333333334</ele><time>2026-04-03T12:03:14Z</time></trkpt><trkpt lat="43.99710196103282" lon="4.579068791463688"><ele>123.0</ele><time>2026-04-03T12:03:15Z</time></trkpt><trkpt lat="43.997246079211706" lon="4.579253650575694"><ele>123.0</ele><time>2026-04-03T12:03:16Z</time></trkpt><trkpt lat="43.997429439038015" lon="4.579401178592653"><ele>123.0</ele><time>2026-04-03T12:03:17Z</time></trkpt><trkpt lat="43.997639183520256" lon="4.5794862115031165"><ele>123.0</ele><time>2026-04-03T12:03:18Z</time></trkpt><trkpt lat="43.997858801073654" lon="4.579533834452885"><ele>123.0</ele><time>2026-04-03T12:03:19Z</time></trkpt><trkpt lat="43.998084107229225" lon="4.579542843081647"><ele>123.0</ele><time>2026-04-03T12:03:20Z</time></trkpt><trkpt lat="43.99830828508415" lon="4.579515188909279"><ele>122.5</ele><time>2026-04-03T12:03:21Z</time></trkpt><trkpt lat="43.99853886899655" lon="4.57945299494937"><ele>122.0</ele><time>2026-04-03T12:03:22Z</time></trkpt><trkpt lat="43.99878367928825" lon="4.579361748480846"><ele>122.0</ele><time>2026-04-03T12:03:23Z</time></trkpt><trkpt lat="43.99904917313682" lon="4.579268190274078"><ele>122.0</ele><time>2026-04-03T12:03:24Z</time></trkpt><trkpt lat="43.99932397364617" lon="4.579183875137967"><ele>124.0</ele><time>2026-04-03T12:03:25Z</time></trkpt><trkpt lat="43.9996145619098" lon="4.5791087192275794"><ele>126.0</ele><time>2026-04-03T12:03:26Z</time></trkpt><trkpt lat="43.99990243738028" lon="4.57902553848703"><ele>126.0</ele><time>2026-04-03T12:03:27Z</time></trkpt><trkpt lat="44.00018228009374" lon="4.57891761080166"><ele>126.0</ele><time>2026-04-03T12:03:28Z</time></trkpt><trkpt lat="44.00045752647079" lon="4.578851872203526"><ele>126.0</ele><time>2026-04-03T12:03:29Z</time></trkpt><trkpt lat="44.0007291741002" lon="4.578782346060416"><ele>126.0</ele><time>2026-04-03T12:03:30Z</time></trkpt><trkpt lat="44.00098903858591" lon="4.578709334019056"><ele>124.5</ele><time>2026-04-03T12:03:31Z</time></trkpt><trkpt lat="44.00123320247613" lon="4.578635929322215"><ele>123.0</ele><time>2026-04-03T12:03:32Z</time></trkpt><trkpt lat="44.001464469178146" lon="4.578566515042117"><ele>123.33333333333334</ele><time>2026-04-03T12:03:33Z</time></trkpt><trkpt lat="44.001685105586866" lon="4.5785345397223365"><ele>123.66666666666667</ele><time>2026-04-03T12:03:34Z</time></trkpt><trkpt lat="44.00188588509675" lon="4.578508964213734"><ele>124.0</ele><time>2026-04-03T12:03:35Z</time></trkpt><trkpt lat="44.00209728323276" lon="4.57850516485965"><ele>124.0</ele><time>2026-04-03T12:03:36Z</time></trkpt><trkpt lat="44.00231132672719" lon="4.578517884659807"><ele>124.0</ele><time>2026-04-03T12:03:37Z</time></trkpt><trkpt lat="44.002526296413315" lon="4.57851318427022"><ele>124.0</ele><time>2026-04-03T12:03:38Z</time></trkpt><trkpt lat="44.00273816761075" lon="4.578500988591936"><ele>124.33333333333334</ele><time>2026-04-03T12:03:39Z</time></trkpt><trkpt lat="44.002948454730934" lon="4.578503111148203"><ele>124.66666666666666</ele><time>2026-04-03T12:03:40Z</time></trkpt><trkpt lat="44.0031607616379" lon="4.578509087805407"><ele>125.0</ele><time>2026-04-03T12:03:41Z</time></trkpt><trkpt lat="44.00336749619779" lon="4.578510110060318"><ele>125.0</ele><time>2026-04-03T12:03:42Z</time></trkpt><trkpt lat="44.003556706659374" lon="4.578506212026776"><ele>125.0</ele><time>2026-04-03T12:03:43Z</time></trkpt><trkpt lat="44.003736605180784" lon="4.578511506064732"><ele>125.0</ele><time>2026-04-03T12:03:44Z</time></trkpt><trkpt lat="44.00391363367919" lon="4.578507860291035"><ele>125.0</ele><time>2026-04-03T12:03:45Z</time></trkpt><trkpt lat="44.00410513102401" lon="4.578503123311648"><ele>125.0</ele><time>2026-04-03T12:03:46Z</time></trkpt><trkpt lat="44.00427630450421" lon="4.578495882076631"><ele>125.0</ele><time>2026-04-03T12:03:47Z</time></trkpt><trkpt lat="44.00442729574765" lon="4.57849020794812"><ele>124.25</ele><time>2026-04-03T12:03:48Z</time></trkpt><trkpt lat="44.00453760121825" lon="4.57852067051672"><ele>123.5</ele><time>2026-04-03T12:03:49Z</time></trkpt><trkpt lat="44.00460961740123" lon="4.578622964448948"><ele>122.75</ele><time>2026-04-03T12:03:50Z</time></trkpt><trkpt lat="44.00464186202295" lon="4.578780177085464"><ele>122.0</ele><time>2026-04-03T12:03:51Z</time></trkpt><trkpt lat="44.00465221913443" lon="4.57900947111828"><ele>122.0</ele><time>2026-04-03T12:03:52Z</time></trkpt><trkpt lat="44.00463166475785" lon="4.579292808412218"><ele>122.0</ele><time>2026-04-03T12:03:53Z</time></trkpt><trkpt lat="44.0046157649169" lon="4.579606945759953"><ele>122.0</ele><time>2026-04-03T12:03:54Z</time></trkpt><trkpt lat="44.00461609687682" lon="4.579889934792548"><ele>122.0</ele><time>2026-04-03T12:03:55Z</time></trkpt><trkpt lat="44.004626714113456" lon="4.580185173836297"><ele>122.0</ele><time>2026-04-03T12:03:56Z</time></trkpt><trkpt lat="44.004639540853276" lon="4.580525962922294"><ele>124.0</ele><time>2026-04-03T12:03:57Z</time></trkpt><trkpt lat="44.004667573497755" lon="4.580861617379753"><ele>126.0</ele><time>2026-04-03T12:03:58Z</time></trkpt><trkpt lat="44.00472470641012" lon="4.5811492430215885"><ele>126.0</ele><time>2026-04-03T12:03:59Z</time></trkpt><trkpt lat="44.004819701287346" lon="4.581421536910084"><ele>126.0</ele><time>2026-04-03T12:04:00Z</time></trkpt><trkpt lat="44.00495687335948" lon="4.581665194567193"><ele>126.0</ele><time>2026-04-03T12:04:01Z</time></trkpt><trkpt lat="44.00510105867081" lon="4.581883097200328"><ele>127.0</ele><time>2026-04-03T12:04:02Z</time></trkpt><trkpt lat="44.00522666290556" lon="4.582055388834323"><ele>128.0</ele><time>2026-04-03T12:04:03Z</time></trkpt><trkpt lat="44.00534459323985" lon="4.58222912687956"><ele>129.0</ele><time>2026-04-03T12:04:04Z</time></trkpt><trkpt lat="44.00548265648644" lon="4.582352131060931"><ele>129.0</ele><time>2026-04-03T12:04:05Z</time></trkpt><trkpt lat="44.005680781968714" lon="4.582392288192343"><ele>129.0</ele><time>2026-04-03T12:04:06Z</time></trkpt><trkpt lat="44.005866898870835" lon="4.582412992539538"><ele>129.0</ele><time>2026-04-03T12:04:07Z</time></trkpt><trkpt lat="44.006029975189556" lon="4.582416094785772"><ele>128.5</ele><time>2026-04-03T12:04:08Z</time></trkpt><trkpt lat="44.006161697373024" lon="4.582420459186035"><ele>128.0</ele><time>2026-04-03T12:04:09Z</time></trkpt><trkpt lat="44.00627810727759" lon="4.5824658935778455"><ele>127.5</ele><time>2026-04-03T12:04:10Z</time></trkpt><trkpt lat="44.00635941345164" lon="4.582472953692055"><ele>127.0</ele><time>2026-04-03T12:04:11Z</time></trkpt><trkpt lat="44.006391436693235" lon="4.582664416477684"><ele>127.0</ele><time>2026-04-03T12:04:12Z</time></trkpt><trkpt lat="44.006330073849334" lon="4.582837329875634"><ele>127.0</ele><time>2026-04-03T12:04:14Z</time></trkpt><trkpt lat="44.00629692975454" lon="4.582978580211675"><ele>127.0</ele><time>2026-04-03T12:04:15Z</time></trkpt><trkpt lat="44.006266582432225" lon="4.583179068331179"><ele>127.0</ele><time>2026-04-03T12:04:16Z</time></trkpt><trkpt lat="44.00620132235294" lon="4.583433640292211"><ele>128.33333333333334</ele><time>2026-04-03T12:04:17Z</time></trkpt><trkpt lat="44.00615105214289" lon="4.583705080046276"><ele>129.66666666666666</ele><time>2026-04-03T12:04:18Z</time></trkpt><trkpt lat="44.006102118597255" lon="4.584032781631751"><ele>131.0</ele><time>2026-04-03T12:04:19Z</time></trkpt><trkpt lat="44.006048724643684" lon="4.584377027829259"><ele>131.5</ele><time>2026-04-03T12:04:20Z</time></trkpt><trkpt lat="44.00598548872106" lon="4.584739664579992"><ele>132.0</ele><time>2026-04-03T12:04:21Z</time></trkpt><trkpt lat="44.00592877183207" lon="4.585081076862688"><ele>131.5</ele><time>2026-04-03T12:04:22Z</time></trkpt><trkpt lat="44.00587007885879" lon="4.58542623880725"><ele>131.0</ele><time>2026-04-03T12:04:23Z</time></trkpt><trkpt lat="44.00581669136675" lon="4.585754675369208"><ele>131.0</ele><time>2026-04-03T12:04:24Z</time></trkpt><trkpt lat="44.00576265471001" lon="4.586073598821318"><ele>131.0</ele><time>2026-04-03T12:04:25Z</time></trkpt><trkpt lat="44.00571186178689" lon="4.586363601364017"><ele>131.0</ele><time>2026-04-03T12:04:26Z</time></trkpt><trkpt lat="44.00566485452212" lon="4.586638162346172"><ele>131.0</ele><time>2026-04-03T12:04:27Z</time></trkpt><trkpt lat="44.00562085827469" lon="4.586897349970687"><ele>131.0</ele><time>2026-04-03T12:04:28Z</time></trkpt><trkpt lat="44.00557756498289" lon="4.587169072895683"><ele>131.66666666666666</ele><time>2026-04-03T12:04:29Z</time></trkpt><trkpt lat="44.00553597586073" lon="4.587410613166027"><ele>132.33333333333334</ele><time>2026-04-03T12:04:30Z</time></trkpt><trkpt lat="44.00549603789396" lon="4.5876552482141735"><ele>133.0</ele><time>2026-04-03T12:04:31Z</time></trkpt><trkpt lat="44.00545482587637" lon="4.587898140166641"><ele>134.0</ele><time>2026-04-03T12:04:32Z</time></trkpt><trkpt lat="44.00542354974877" lon="4.588147733340452"><ele>135.0</ele><time>2026-04-03T12:04:33Z</time></trkpt><trkpt lat="44.005403324502055" lon="4.588409933498428"><ele>136.0</ele><time>2026-04-03T12:04:34Z</time></trkpt><trkpt lat="44.00538519059097" lon="4.588690530206872"><ele>136.66666666666669</ele><time>2026-04-03T12:04:35Z</time></trkpt><trkpt lat="44.0053621381304" lon="4.588969535349984"><ele>137.33333333333334</ele><time>2026-04-03T12:04:36Z</time></trkpt><trkpt lat="44.00534198188892" lon="4.589229161469901"><ele>138.0</ele><time>2026-04-03T12:04:37Z</time></trkpt><trkpt lat="44.00532368285594" lon="4.5894553363348844"><ele>138.25</ele><time>2026-04-03T12:04:38Z</time></trkpt><trkpt lat="44.005307649312115" lon="4.589656847960228"><ele>138.5</ele><time>2026-04-03T12:04:39Z</time></trkpt><trkpt lat="44.005294528099896" lon="4.589841784508785"><ele>138.75</ele><time>2026-04-03T12:04:40Z</time></trkpt><trkpt lat="44.00528414148038" lon="4.59002204812287"><ele>139.0</ele><time>2026-04-03T12:04:41Z</time></trkpt><trkpt lat="44.005296508408" lon="4.59018595805607"><ele>139.0</ele><time>2026-04-03T12:04:42Z</time></trkpt><trkpt lat="44.00533253213721" lon="4.590336630902598"><ele>139.0</ele><time>2026-04-03T12:04:43Z</time></trkpt><trkpt lat="44.005399288709995" lon="4.590495518182348"><ele>139.0</ele><time>2026-04-03T12:04:44Z</time></trkpt><trkpt lat="44.00545525926229" lon="4.5906576153458545"><ele>139.0</ele><time>2026-04-03T12:04:45Z</time></trkpt><trkpt lat="44.00550923588157" lon="4.59076990754058"><ele>139.0</ele><time>2026-04-03T12:04:46Z</time></trkpt><trkpt lat="44.005547163128945" lon="4.590848810849896"><ele>139.0</ele><time>2026-04-03T12:04:47Z</time></trkpt><trkpt lat="44.005394566230514" lon="4.5910472811558405"><ele>139.0</ele><time>2026-04-03T12:04:52Z</time></trkpt><trkpt lat="44.00532415005731" lon="4.591073029061028"><ele>139.0</ele><time>2026-04-03T12:04:53Z</time></trkpt><trkpt lat="44.005257343572765" lon="4.591102281248144"><ele>139.0</ele><time>2026-04-03T12:04:54Z</time></trkpt><trkpt lat="44.00514539367141" lon="4.5911542751689876"><ele>139.4</ele><time>2026-04-03T12:04:56Z</time></trkpt><trkpt lat="44.00506441098104" lon="4.59124237011656"><ele>139.8</ele><time>2026-04-03T12:04:58Z</time></trkpt><trkpt lat="44.004975234980556" lon="4.591387546387857"><ele>140.2</ele><time>2026-04-03T12:05:00Z</time></trkpt><trkpt lat="44.00494486920734" lon="4.5914953013888"><ele>140.6</ele><time>2026-04-03T12:05:01Z</time></trkpt><trkpt lat="44.0049079186024" lon="4.591617740540686"><ele>141.0</ele><time>2026-04-03T12:05:02Z</time></trkpt><trkpt lat="44.0048693588485" lon="4.591731870991558"><ele>142.0</ele><time>2026-04-03T12:05:03Z</time></trkpt><trkpt lat="44.004837037779666" lon="4.591868128167753"><ele>143.0</ele><time>2026-04-03T12:05:04Z</time></trkpt><trkpt lat="44.004810095781075" lon="4.5920006236115265"><ele>144.0</ele><time>2026-04-03T12:05:05Z</time></trkpt><trkpt lat="44.00478499458335" lon="4.592116594419063"><ele>145.0</ele><time>2026-04-03T12:05:06Z</time></trkpt><trkpt lat="44.0047508137018" lon="4.592227598984614"><ele>146.0</ele><time>2026-04-03T12:05:07Z</time></trkpt><trkpt lat="44.004647375861126" lon="4.592346624053594"><ele>147.0</ele><time>2026-04-03T12:05:09Z</time></trkpt><trkpt lat="44.00458571971015" lon="4.5924059703209945"><ele>148.0</ele><time>2026-04-03T12:05:10Z</time></trkpt><trkpt lat="44.00453932617294" lon="4.5924739362485365"><ele>149.0</ele><time>2026-04-03T12:05:11Z</time></trkpt><trkpt lat="44.00450862818823" lon="4.592562186180523"><ele>150.0</ele><time>2026-04-03T12:05:12Z</time></trkpt><trkpt lat="44.004480062678155" lon="4.592668212553173"><ele>151.0</ele><time>2026-04-03T12:05:13Z</time></trkpt><trkpt lat="44.00444890627933" lon="4.5927951511168335"><ele>152.0</ele><time>2026-04-03T12:05:14Z</time></trkpt><trkpt lat="44.00441459185166" lon="4.592894284685874"><ele>152.33333333333331</ele><time>2026-04-03T12:05:15Z</time></trkpt><trkpt lat="44.0043730203579" lon="4.593008284281552"><ele>152.66666666666666</ele><time>2026-04-03T12:05:16Z</time></trkpt><trkpt lat="44.00431790755301" lon="4.593086597488808"><ele>153.0</ele><time>2026-04-03T12:05:17Z</time></trkpt><trkpt lat="44.00425419053145" lon="4.593151428138618"><ele>153.33333333333334</ele><time>2026-04-03T12:05:18Z</time></trkpt><trkpt lat="44.00418510258375" lon="4.593199146409711"><ele>153.66666666666669</ele><time>2026-04-03T12:05:19Z</time></trkpt><trkpt lat="44.00410779814522" lon="4.593253989709481"><ele>154.0</ele><time>2026-04-03T12:05:20Z</time></trkpt><trkpt lat="44.00405469107138" lon="4.59330844217159"><ele>155.42857142857142</ele><time>2026-04-03T12:05:21Z</time></trkpt><trkpt lat="44.00400035852545" lon="4.593393557753336"><ele>156.85714285714286</ele><time>2026-04-03T12:05:22Z</time></trkpt><trkpt lat="44.00397039847458" lon="4.593491446542206"><ele>158.28571428571428</ele><time>2026-04-03T12:05:23Z</time></trkpt><trkpt lat="44.00392700430923" lon="4.593557438535287"><ele>159.71428571428572</ele><time>2026-04-03T12:05:24Z</time></trkpt><trkpt lat="44.0038783809412" lon="4.59361696761567"><ele>161.14285714285714</ele><time>2026-04-03T12:05:25Z</time></trkpt><trkpt lat="44.00382128545492" lon="4.593671446965733"><ele>162.57142857142856</ele><time>2026-04-03T12:05:26Z</time></trkpt><trkpt lat="44.00376414796585" lon="4.593721695637065"><ele>164.0</ele><time>2026-04-03T12:05:27Z</time></trkpt><trkpt lat="44.00372080680828" lon="4.593801346194281"><ele>164.25</ele><time>2026-04-03T12:05:28Z</time></trkpt><trkpt lat="44.00369474204234" lon="4.593926534846578"><ele>164.5</ele><time>2026-04-03T12:05:29Z</time></trkpt><trkpt lat="44.00365407401208" lon="4.594102081936397"><ele>164.75</ele><time>2026-04-03T12:05:30Z</time></trkpt><trkpt lat="44.003614674394335" lon="4.594272005396749"><ele>165.0</ele><time>2026-04-03T12:05:31Z</time></trkpt><trkpt lat="44.00357782345977" lon="4.594428120745346"><ele>165.75</ele><time>2026-04-03T12:05:32Z</time></trkpt><trkpt lat="44.00354785707323" lon="4.594584395809634"><ele>166.5</ele><time>2026-04-03T12:05:33Z</time></trkpt><trkpt lat="44.00350653913012" lon="4.594738595757854"><ele>167.25</ele><time>2026-04-03T12:05:34Z</time></trkpt><trkpt lat="44.003454385759056" lon="4.59489766173134"><ele>168.0</ele><time>2026-04-03T12:05:35Z</time></trkpt><trkpt lat="44.00341130669963" lon="4.595053815453271"><ele>168.0</ele><time>2026-04-03T12:05:36Z</time></trkpt><trkpt lat="44.003368949047044" lon="4.595198005500047"><ele>168.0</ele><time>2026-04-03T12:05:37Z</time></trkpt><trkpt lat="44.003329233339876" lon="4.595336926206355"><ele>168.0</ele><time>2026-04-03T12:05:38Z</time></trkpt><trkpt lat="44.00328964398108" lon="4.595495113505296"><ele>168.0</ele><time>2026-04-03T12:05:39Z</time></trkpt><trkpt lat="44.003249872716054" lon="4.595657822654586"><ele>171.4</ele><time>2026-04-03T12:05:40Z</time></trkpt><trkpt lat="44.003201940375234" lon="4.59578947688121"><ele>174.8</ele><time>2026-04-03T12:05:41Z</time></trkpt><trkpt lat="44.00314773330647" lon="4.595916148898762"><ele>178.2</ele><time>2026-04-03T12:05:42Z</time></trkpt><trkpt lat="44.003128641922935" lon="4.596018818664148"><ele>181.6</ele><time>2026-04-03T12:05:43Z</time></trkpt><trkpt lat="44.00312014435751" lon="4.596111970137083"><ele>185.0</ele><time>2026-04-03T12:05:44Z</time></trkpt><trkpt lat="44.00305710859525" lon="4.596258369638104"><ele>185.0</ele><time>2026-04-03T12:05:46Z</time></trkpt><trkpt lat="44.00301008041477" lon="4.596404498190482"><ele>185.0</ele><time>2026-04-03T12:05:48Z</time></trkpt><trkpt lat="44.00300766366628" lon="4.596536002380707"><ele>185.0</ele><time>2026-04-03T12:05:50Z</time></trkpt><trkpt lat="44.00298073980761" lon="4.596618061724332"><ele>185.0</ele><time>2026-04-03T12:05:52Z</time></trkpt><trkpt lat="44.00297951733942" lon="4.596718466586458"><ele>185.0</ele><time>2026-04-03T12:05:54Z</time></trkpt><trkpt lat="44.003036439397604" lon="4.596838745086833"><ele>185.0</ele><time>2026-04-03T12:05:56Z</time></trkpt><trkpt lat="44.003064360948194" lon="4.596938218648117"><ele>185.0</ele><time>2026-04-03T12:05:58Z</time></trkpt><trkpt lat="44.003105746434755" lon="4.597034073176571"><ele>185.0</ele><time>2026-04-03T12:06:03Z</time></trkpt><trkpt lat="44.00315596738747" lon="4.597114625787604"><ele>185.0</ele><time>2026-04-03T12:06:05Z</time></trkpt><trkpt lat="44.00309489565509" lon="4.5972155196096995"><ele>185.0</ele><time>2026-04-03T12:06:08Z</time></trkpt><trkpt lat="44.00302924061091" lon="4.597334703345569"><ele>185.0</ele><time>2026-04-03T12:06:10Z</time></trkpt><trkpt lat="44.00299272960055" lon="4.5974473169126275"><ele>184.2</ele><time>2026-04-03T12:06:11Z</time></trkpt><trkpt lat="44.0029617446998" lon="4.597548738666002"><ele>183.4</ele><time>2026-04-03T12:06:12Z</time></trkpt><trkpt lat="44.0029637828194" lon="4.597714177915685"><ele>182.60000000000002</ele><time>2026-04-03T12:06:14Z</time></trkpt><trkpt lat="44.002982656977444" lon="4.597857695739908"><ele>181.8</ele><time>2026-04-03T12:06:15Z</time></trkpt><trkpt lat="44.00298584172023" lon="4.598010217233182"><ele>181.0</ele><time>2026-04-03T12:06:16Z</time></trkpt><trkpt lat="44.00297955617924" lon="4.5981058680981945"><ele>180.20000000000002</ele><time>2026-04-03T12:06:17Z</time></trkpt><trkpt lat="44.00302798519758" lon="4.598236220832755"><ele>179.4</ele><time>2026-04-03T12:06:19Z</time></trkpt><trkpt lat="44.003080989304834" lon="4.59829667711103"><ele>178.6</ele><time>2026-04-03T12:06:20Z</time></trkpt><trkpt lat="44.00314700004183" lon="4.598420721044436"><ele>177.8</ele><time>2026-04-03T12:06:22Z</time></trkpt><trkpt lat="44.00318567703546" lon="4.598553985527943"><ele>177.0</ele><time>2026-04-03T12:06:24Z</time></trkpt><trkpt lat="44.003182755343715" lon="4.598654093437913"><ele>176.5</ele><time>2026-04-03T12:06:25Z</time></trkpt><trkpt lat="44.00312975716509" lon="4.598770679172409"><ele>176.0</ele><time>2026-04-03T12:06:27Z</time></trkpt><trkpt lat="44.00307388850622" lon="4.598828478829094"><ele>175.5</ele><time>2026-04-03T12:06:28Z</time></trkpt><trkpt lat="44.00302237846855" lon="4.598920086210939"><ele>175.0</ele><time>2026-04-03T12:06:29Z</time></trkpt><trkpt lat="44.00298316916626" lon="4.59900738083556"><ele>174.5</ele><time>2026-04-03T12:06:30Z</time></trkpt><trkpt lat="44.00294025463419" lon="4.599089040667582"><ele>174.0</ele><time>2026-04-03T12:06:31Z</time></trkpt><trkpt lat="44.002911384305676" lon="4.599168810618364"><ele>174.0</ele><time>2026-04-03T12:06:32Z</time></trkpt><trkpt lat="44.00281979093242" lon="4.5992791411361535"><ele>174.0</ele><time>2026-04-03T12:06:34Z</time></trkpt><trkpt lat="44.00273028536767" lon="4.599303649049801"><ele>174.0</ele><time>2026-04-03T12:06:36Z</time></trkpt><trkpt lat="44.00266094905234" lon="4.5995061300478834"><ele>174.0</ele><time>2026-04-03T12:06:38Z</time></trkpt><trkpt lat="44.002621127704025" lon="4.599648681965158"><ele>173.6</ele><time>2026-04-03T12:06:39Z</time></trkpt><trkpt lat="44.00258487563341" lon="4.599767925832852"><ele>173.2</ele><time>2026-04-03T12:06:40Z</time></trkpt><trkpt lat="44.00255778311311" lon="4.59988299273865"><ele>172.79999999999998</ele><time>2026-04-03T12:06:41Z</time></trkpt><trkpt lat="44.002540716323665" lon="4.599997505998036"><ele>172.39999999999998</ele><time>2026-04-03T12:06:42Z</time></trkpt><trkpt lat="44.002536977059265" lon="4.6001320328972195"><ele>172.0</ele><time>2026-04-03T12:06:43Z</time></trkpt><trkpt lat="44.00253726956645" lon="4.600259075725111"><ele>172.2</ele><time>2026-04-03T12:06:44Z</time></trkpt><trkpt lat="44.002537717835544" lon="4.600399329078234"><ele>172.39999999999998</ele><time>2026-04-03T12:06:45Z</time></trkpt><trkpt lat="44.0025308388736" lon="4.600546669832793"><ele>172.60000000000002</ele><time>2026-04-03T12:06:46Z</time></trkpt><trkpt lat="44.00252342501803" lon="4.600676206633856"><ele>172.8</ele><time>2026-04-03T12:06:47Z</time></trkpt><trkpt lat="44.00252214734145" lon="4.6008229093388"><ele>173.0</ele><time>2026-04-03T12:06:48Z</time></trkpt><trkpt lat="44.0025067553254" lon="4.600913994422837"><ele>174.0</ele><time>2026-04-03T12:06:49Z</time></trkpt><trkpt lat="44.00248080543243" lon="4.601010316114698"><ele>175.0</ele><time>2026-04-03T12:06:50Z</time></trkpt><trkpt lat="44.00242998039528" lon="4.6011296348166635"><ele>176.0</ele><time>2026-04-03T12:06:52Z</time></trkpt><trkpt lat="44.00232034823056" lon="4.601223832242044"><ele>177.0</ele><time>2026-04-03T12:06:54Z</time></trkpt><trkpt lat="44.00224560726016" lon="4.6013423902408235"><ele>178.0</ele><time>2026-04-03T12:06:56Z</time></trkpt><trkpt lat="44.00216961380993" lon="4.601438475627486"><ele>178.0</ele><time>2026-04-03T12:06:58Z</time></trkpt><trkpt lat="44.00203501418072" lon="4.601479388069072"><ele>178.0</ele><time>2026-04-03T12:07:00Z</time></trkpt><trkpt lat="44.00196695153376" lon="4.601561188295576"><ele>178.0</ele><time>2026-04-03T12:07:01Z</time></trkpt><trkpt lat="44.00190182290166" lon="4.60163866714968"><ele>178.0</ele><time>2026-04-03T12:07:02Z</time></trkpt><trkpt lat="44.00185841780713" lon="4.601738862914519"><ele>178.0</ele><time>2026-04-03T12:07:03Z</time></trkpt><trkpt lat="44.001806010773095" lon="4.6018710114297185"><ele>176.5</ele><time>2026-04-03T12:07:04Z</time></trkpt><trkpt lat="44.00172759236773" lon="4.602013100268661"><ele>175.0</ele><time>2026-04-03T12:07:05Z</time></trkpt><trkpt lat="44.0016538040488" lon="4.602194359600482"><ele>173.5</ele><time>2026-04-03T12:07:06Z</time></trkpt><trkpt lat="44.00159398494057" lon="4.602322834449063"><ele>172.0</ele><time>2026-04-03T12:07:07Z</time></trkpt><trkpt lat="44.00153273420883" lon="4.6024428751619135"><ele>173.16666666666669</ele><time>2026-04-03T12:07:08Z</time></trkpt><trkpt lat="44.00147837560749" lon="4.602533926334244"><ele>174.33333333333334</ele><time>2026-04-03T12:07:09Z</time></trkpt><trkpt lat="44.00143101409491" lon="4.602610040126297"><ele>175.5</ele><time>2026-04-03T12:07:10Z</time></trkpt><trkpt lat="44.00140723032717" lon="4.602763467926412"><ele>176.66666666666666</ele><time>2026-04-03T12:07:12Z</time></trkpt><trkpt lat="44.00138500599672" lon="4.6028853524664575"><ele>177.83333333333331</ele><time>2026-04-03T12:07:14Z</time></trkpt><trkpt lat="44.001318012723836" lon="4.602947710995942"><ele>179.0</ele><time>2026-04-03T12:07:15Z</time></trkpt><trkpt lat="44.001244079072244" lon="4.603055928559849"><ele>179.0</ele><time>2026-04-03T12:07:16Z</time></trkpt><trkpt lat="44.001182204998365" lon="4.60320908572834"><ele>179.0</ele><time>2026-04-03T12:07:17Z</time></trkpt><trkpt lat="44.001122219920845" lon="4.603332495000682"><ele>179.0</ele><time>2026-04-03T12:07:18Z</time></trkpt><trkpt lat="44.001034727140656" lon="4.603450119565179"><ele>179.0</ele><time>2026-04-03T12:07:19Z</time></trkpt><trkpt lat="44.00094352089017" lon="4.603604765245482"><ele>180.0</ele><time>2026-04-03T12:07:20Z</time></trkpt><trkpt lat="44.00084554785849" lon="4.603770201327158"><ele>181.0</ele><time>2026-04-03T12:07:21Z</time></trkpt><trkpt lat="44.0007470807153" lon="4.603904208356518"><ele>182.0</ele><time>2026-04-03T12:07:22Z</time></trkpt><trkpt lat="44.0006660820166" lon="4.6040396629677565"><ele>183.0</ele><time>2026-04-03T12:07:23Z</time></trkpt><trkpt lat="44.000593992597246" lon="4.6041682028950985"><ele>183.0</ele><time>2026-04-03T12:07:24Z</time></trkpt><trkpt lat="44.00052045488789" lon="4.604279638421872"><ele>183.0</ele><time>2026-04-03T12:07:25Z</time></trkpt><trkpt lat="44.00044893665438" lon="4.604376734335492"><ele>183.0</ele><time>2026-04-03T12:07:26Z</time></trkpt><trkpt lat="44.0003875411098" lon="4.6044686586378685"><ele>183.0</ele><time>2026-04-03T12:07:27Z</time></trkpt><trkpt lat="44.00033240404673" lon="4.6045718144266745"><ele>183.0</ele><time>2026-04-03T12:07:28Z</time></trkpt><trkpt lat="44.000275235308315" lon="4.604678758998001"><ele>181.2</ele><time>2026-04-03T12:07:29Z</time></trkpt><trkpt lat="44.000222638182784" lon="4.604775871228285"><ele>179.4</ele><time>2026-04-03T12:07:30Z</time></trkpt><trkpt lat="44.000180128325916" lon="4.604872681805324"><ele>177.6</ele><time>2026-04-03T12:07:31Z</time></trkpt><trkpt lat="44.00014785970355" lon="4.604951254604404"><ele>175.79999999999998</ele><time>2026-04-03T12:07:32Z</time></trkpt><trkpt lat="44.000070228408426" lon="4.605087715474474"><ele>174.0</ele><time>2026-04-03T12:07:34Z</time></trkpt><trkpt lat="43.999997064498025" lon="4.605164729489288"><ele>174.0</ele><time>2026-04-03T12:07:35Z</time></trkpt><trkpt lat="43.99993025483107" lon="4.605244611752982"><ele>174.0</ele><time>2026-04-03T12:07:36Z</time></trkpt><trkpt lat="43.99984238563169" lon="4.605307895861995"><ele>174.0</ele><time>2026-04-03T12:07:37Z</time></trkpt><trkpt lat="43.999736074792054" lon="4.6053773115489385"><ele>174.0</ele><time>2026-04-03T12:07:38Z</time></trkpt><trkpt lat="43.99964234941269" lon="4.605454026026168"><ele>174.0</ele><time>2026-04-03T12:07:39Z</time></trkpt><trkpt lat="43.99953690760838" lon="4.6055258805627775"><ele>174.0</ele><time>2026-04-03T12:07:40Z</time></trkpt><trkpt lat="43.999451191962386" lon="4.605567864839256"><ele>174.0</ele><time>2026-04-03T12:07:41Z</time></trkpt><trkpt lat="43.99938842071999" lon="4.6056003587892835"><ele>174.0</ele><time>2026-04-03T12:07:42Z</time></trkpt><trkpt lat="43.99932055508222" lon="4.605662569461384"><ele>174.0</ele><time>2026-04-03T12:07:43Z</time></trkpt><trkpt lat="43.99924455966727" lon="4.605723627783046"><ele>174.0</ele><time>2026-04-03T12:07:44Z</time></trkpt><trkpt lat="43.9991554830649" lon="4.60577016711945"><ele>174.0</ele><time>2026-04-03T12:07:45Z</time></trkpt><trkpt lat="43.99908014119563" lon="4.6058027266313895"><ele>174.0</ele><time>2026-04-03T12:07:46Z</time></trkpt><trkpt lat="43.99902013910026" lon="4.605850224190829"><ele>174.0</ele><time>2026-04-03T12:07:47Z</time></trkpt><trkpt lat="43.99897881412374" lon="4.605956358880054"><ele>174.0</ele><time>2026-04-03T12:07:49Z</time></trkpt><trkpt lat="43.99897062064945" lon="4.6060626880611295"><ele>174.0</ele><time>2026-04-03T12:07:51Z</time></trkpt><trkpt lat="43.998912726669886" lon="4.606152362213569"><ele>174.0</ele><time>2026-04-03T12:07:53Z</time></trkpt><trkpt lat="43.9988546968385" lon="4.606204079263592"><ele>174.0</ele><time>2026-04-03T12:07:56Z</time></trkpt><trkpt lat="43.998786483464784" lon="4.60625770114138"><ele>174.0</ele><time>2026-04-03T12:07:59Z</time></trkpt><trkpt lat="43.99875026217973" lon="4.606355329090768"><ele>174.0</ele><time>2026-04-03T12:08:01Z</time></trkpt><trkpt lat="43.998756373497876" lon="4.606476550140785"><ele>174.0</ele><time>2026-04-03T12:08:03Z</time></trkpt><trkpt lat="43.9987413569245" lon="4.606579224649856"><ele>174.0</ele><time>2026-04-03T12:08:05Z</time></trkpt><trkpt lat="43.99869780956965" lon="4.606676968680022"><ele>174.0</ele><time>2026-04-03T12:08:07Z</time></trkpt><trkpt lat="43.99866358163454" lon="4.606776538637611"><ele>174.0</ele><time>2026-04-03T12:08:09Z</time></trkpt><trkpt lat="43.99863765396" lon="4.606872750497163"><ele>174.0</ele><time>2026-04-03T12:08:11Z</time></trkpt><trkpt lat="43.99860775023195" lon="4.60695942874522"><ele>174.0</ele><time>2026-04-03T12:08:13Z</time></trkpt><trkpt lat="43.99856811023963" lon="4.607037708760984"><ele>174.0</ele><time>2026-04-03T12:08:15Z</time></trkpt><trkpt lat="43.998539836604344" lon="4.607148127695882"><ele>174.0</ele><time>2026-04-03T12:08:18Z</time></trkpt><trkpt lat="43.99858535238524" lon="4.607246941326374"><ele>174.0</ele><time>2026-04-03T12:08:21Z</time></trkpt><trkpt lat="43.99859447426052" lon="4.607335081560599"><ele>174.0</ele><time>2026-04-03T12:08:25Z</time></trkpt><trkpt lat="43.99857240278282" lon="4.60745027110077"><ele>174.33333333333334</ele><time>2026-04-03T12:08:39Z</time></trkpt><trkpt lat="43.99851485072821" lon="4.607534094329218"><ele>174.66666666666666</ele><time>2026-04-03T12:08:40Z</time></trkpt><trkpt lat="43.998451316352735" lon="4.607614454179811"><ele>175.0</ele><time>2026-04-03T12:08:41Z</time></trkpt><trkpt lat="43.99841968652081" lon="4.6077230875854465"><ele>175.33333333333331</ele><time>2026-04-03T12:08:42Z</time></trkpt><trkpt lat="43.998422544456695" lon="4.607849950091733"><ele>175.66666666666666</ele><time>2026-04-03T12:08:43Z</time></trkpt><trkpt lat="43.99845504521532" lon="4.607974721412365"><ele>176.0</ele><time>2026-04-03T12:08:44Z</time></trkpt><trkpt lat="43.998500681950915" lon="4.608097447728438"><ele>176.0</ele><time>2026-04-03T12:08:45Z</time></trkpt><trkpt lat="43.998553549885266" lon="4.608214991877803"><ele>176.0</ele><time>2026-04-03T12:08:46Z</time></trkpt><trkpt lat="43.99860770601911" lon="4.608343077980223"><ele>176.0</ele><time>2026-04-03T12:08:47Z</time></trkpt><trkpt lat="43.99865506508768" lon="4.608499777701249"><ele>176.0</ele><time>2026-04-03T12:08:48Z</time></trkpt><trkpt lat="43.99872713203417" lon="4.608629412947662"><ele>176.0</ele><time>2026-04-03T12:08:49Z</time></trkpt><trkpt lat="43.99877907860657" lon="4.60873341994062"><ele>174.60000000000002</ele><time>2026-04-03T12:08:50Z</time></trkpt><trkpt lat="43.99884609262744" lon="4.608794866424598"><ele>173.2</ele><time>2026-04-03T12:08:51Z</time></trkpt><trkpt lat="43.99893926675041" lon="4.6088093453809265"><ele>171.8</ele><time>2026-04-03T12:08:52Z</time></trkpt><trkpt lat="43.99904404135529" lon="4.608817968629276"><ele>170.39999999999998</ele><time>2026-04-03T12:08:53Z</time></trkpt><trkpt lat="43.99916503055295" lon="4.608827411592135"><ele>169.0</ele><time>2026-04-03T12:08:54Z</time></trkpt><trkpt lat="43.99927281747182" lon="4.608886864331755"><ele>169.0</ele><time>2026-04-03T12:08:55Z</time></trkpt><trkpt lat="43.99937174185059" lon="4.608942626652876"><ele>169.0</ele><time>2026-04-03T12:08:56Z</time></trkpt><trkpt lat="43.999446174964255" lon="4.609048494938092"><ele>169.0</ele><time>2026-04-03T12:08:57Z</time></trkpt><trkpt lat="43.999502668793326" lon="4.609188114671563"><ele>169.0</ele><time>2026-04-03T12:08:58Z</time></trkpt><trkpt lat="43.99953898538566" lon="4.609353498851218"><ele>166.0</ele><time>2026-04-03T12:08:59Z</time></trkpt><trkpt lat="43.999537454439455" lon="4.609547789075719"><ele>163.0</ele><time>2026-04-03T12:09:00Z</time></trkpt><trkpt lat="43.999509957917105" lon="4.609753490772995"><ele>160.0</ele><time>2026-04-03T12:09:01Z</time></trkpt><trkpt lat="43.99947727102054" lon="4.609972122084182"><ele>160.0</ele><time>2026-04-03T12:09:02Z</time></trkpt><trkpt lat="43.999441120403866" lon="4.610201034436116"><ele>160.0</ele><time>2026-04-03T12:09:03Z</time></trkpt><trkpt lat="43.99940132877273" lon="4.610424989001845"><ele>160.0</ele><time>2026-04-03T12:09:04Z</time></trkpt><trkpt lat="43.99934024310245" lon="4.610612072575991"><ele>160.33333333333334</ele><time>2026-04-03T12:09:06Z</time></trkpt><trkpt lat="43.999231677189975" lon="4.610738159786501"><ele>160.66666666666666</ele><time>2026-04-03T12:09:07Z</time></trkpt><trkpt lat="43.99909925919638" lon="4.6108862894641245"><ele>161.0</ele><time>2026-04-03T12:09:08Z</time></trkpt><trkpt lat="43.99895416114853" lon="4.611064345507948"><ele>166.66666666666666</ele><time>2026-04-03T12:09:09Z</time></trkpt><trkpt lat="43.99878802219915" lon="4.6112406695399795"><ele>172.33333333333334</ele><time>2026-04-03T12:09:10Z</time></trkpt><trkpt lat="43.99863918877008" lon="4.611410151710262"><ele>178.0</ele><time>2026-04-03T12:09:11Z</time></trkpt><trkpt lat="43.9984946310808" lon="4.611567275200899"><ele>178.0</ele><time>2026-04-03T12:09:12Z</time></trkpt><trkpt lat="43.99836477373741" lon="4.611717530784164"><ele>178.0</ele><time>2026-04-03T12:09:13Z</time></trkpt><trkpt lat="43.99826128943484" lon="4.611860023873157"><ele>178.0</ele><time>2026-04-03T12:09:14Z</time></trkpt><trkpt lat="43.99819555293589" lon="4.612025003180559"><ele>176.0</ele><time>2026-04-03T12:09:15Z</time></trkpt><trkpt lat="43.998203384657884" lon="4.612219553171608"><ele>174.0</ele><time>2026-04-03T12:09:16Z</time></trkpt><trkpt lat="43.99822031631639" lon="4.612414481371657"><ele>172.0</ele><time>2026-04-03T12:09:17Z</time></trkpt><trkpt lat="43.99829026088417" lon="4.612582442684577"><ele>170.0</ele><time>2026-04-03T12:09:18Z</time></trkpt><trkpt lat="43.99836522423858" lon="4.61275185653998"><ele>170.6</ele><time>2026-04-03T12:09:19Z</time></trkpt><trkpt lat="43.99844875473847" lon="4.612865570307012"><ele>171.2</ele><time>2026-04-03T12:09:20Z</time></trkpt><trkpt lat="43.99847750550075" lon="4.61298824485315"><ele>171.8</ele><time>2026-04-03T12:09:21Z</time></trkpt><trkpt lat="43.99840882457588" lon="4.61307966302926"><ele>172.4</ele><time>2026-04-03T12:09:22Z</time></trkpt><trkpt lat="43.99832633559555" lon="4.613142578351682"><ele>173.0</ele><time>2026-04-03T12:09:23Z</time></trkpt><trkpt lat="43.99821910513777" lon="4.613115825101063"><ele>173.0</ele><time>2026-04-03T12:09:24Z</time></trkpt><trkpt lat="43.998093957472584" lon="4.613144990064456"><ele>173.0</ele><time>2026-04-03T12:09:25Z</time></trkpt><trkpt lat="43.99797970186755" lon="4.613224624474861"><ele>173.0</ele><time>2026-04-03T12:09:26Z</time></trkpt><trkpt lat="43.99789031079498" lon="4.613365571520438"><ele>173.0</ele><time>2026-04-03T12:09:27Z</time></trkpt><trkpt lat="43.99787897746787" lon="4.613545748495601"><ele>179.66666666666666</ele><time>2026-04-03T12:09:28Z</time></trkpt><trkpt lat="43.99786311611196" lon="4.613780721624892"><ele>186.33333333333331</ele><time>2026-04-03T12:09:29Z</time></trkpt><trkpt lat="43.997867877054745" lon="4.614035586972964"><ele>193.0</ele><time>2026-04-03T12:09:30Z</time></trkpt><trkpt lat="43.99785518645916" lon="4.614284281818169"><ele>198.0</ele><time>2026-04-03T12:09:31Z</time></trkpt><trkpt lat="43.99779938699361" lon="4.614513822709376"><ele>203.0</ele><time>2026-04-03T12:09:32Z</time></trkpt><trkpt lat="43.997732968453526" lon="4.614745731983932"><ele>208.0</ele><time>2026-04-03T12:09:33Z</time></trkpt><trkpt lat="43.997655927034195" lon="4.614987467031183"><ele>208.0</ele><time>2026-04-03T12:09:34Z</time></trkpt><trkpt lat="43.9975779354486" lon="4.61523003176044"><ele>208.0</ele><time>2026-04-03T12:09:35Z</time></trkpt><trkpt lat="43.99750939909039" lon="4.615458804559821"><ele>208.0</ele><time>2026-04-03T12:09:36Z</time></trkpt><trkpt lat="43.99746784478202" lon="4.615667813479042"><ele>207.0</ele><time>2026-04-03T12:09:37Z</time></trkpt><trkpt lat="43.9974450140696" lon="4.615865169746083"><ele>206.0</ele><time>2026-04-03T12:09:38Z</time></trkpt><trkpt lat="43.99747395491595" lon="4.616088268765512"><ele>205.0</ele><time>2026-04-03T12:09:39Z</time></trkpt><trkpt lat="43.99752959487289" lon="4.616330101443018"><ele>205.0</ele><time>2026-04-03T12:09:40Z</time></trkpt><trkpt lat="43.99759559153652" lon="4.616579366161672"><ele>205.0</ele><time>2026-04-03T12:09:41Z</time></trkpt><trkpt lat="43.99765923845287" lon="4.616853256258599"><ele>205.0</ele><time>2026-04-03T12:09:42Z</time></trkpt><trkpt lat="43.99771741171316" lon="4.617111268895907"><ele>202.33333333333331</ele><time>2026-04-03T12:09:43Z</time></trkpt><trkpt lat="43.99778169438815" lon="4.617360630465046"><ele>199.66666666666669</ele><time>2026-04-03T12:09:44Z</time></trkpt><trkpt lat="43.99788189698962" lon="4.617567143595613"><ele>197.0</ele><time>2026-04-03T12:09:45Z</time></trkpt><trkpt lat="43.998021948409274" lon="4.617775821930653"><ele>194.33333333333334</ele><time>2026-04-03T12:09:46Z</time></trkpt><trkpt lat="43.998163277805816" lon="4.61799502283582"><ele>191.66666666666669</ele><time>2026-04-03T12:09:47Z</time></trkpt><trkpt lat="43.998290861828536" lon="4.6181990117414315"><ele>189.0</ele><time>2026-04-03T12:09:48Z</time></trkpt><trkpt lat="43.99840478362786" lon="4.6183843632698744"><ele>191.5</ele><time>2026-04-03T12:09:49Z</time></trkpt><trkpt lat="43.998506704259725" lon="4.61855217365083"><ele>194.0</ele><time>2026-04-03T12:09:50Z</time></trkpt><trkpt lat="43.9985749605622" lon="4.618735905611429"><ele>196.5</ele><time>2026-04-03T12:09:51Z</time></trkpt><trkpt lat="43.99860578531307" lon="4.618914839763519"><ele>199.0</ele><time>2026-04-03T12:09:52Z</time></trkpt><trkpt lat="43.998578350221585" lon="4.619076985946106"><ele>199.0</ele><time>2026-04-03T12:09:53Z</time></trkpt><trkpt lat="43.99852022054019" lon="4.619223182070602"><ele>199.0</ele><time>2026-04-03T12:09:54Z</time></trkpt><trkpt lat="43.99842177178678" lon="4.619347755023056"><ele>199.0</ele><time>2026-04-03T12:09:55Z</time></trkpt><trkpt lat="43.99828418147372" lon="4.619408550446121"><ele>199.0</ele><time>2026-04-03T12:09:56Z</time></trkpt><trkpt lat="43.99813177564277" lon="4.619506330229878"><ele>200.0</ele><time>2026-04-03T12:09:57Z</time></trkpt><trkpt lat="43.99795369083742" lon="4.619576990612374"><ele>201.0</ele><time>2026-04-03T12:09:58Z</time></trkpt><trkpt lat="43.997760779621196" lon="4.619676308607351"><ele>202.0</ele><time>2026-04-03T12:09:59Z</time></trkpt><trkpt lat="43.9975501149061" lon="4.6197900686625895"><ele>201.0</ele><time>2026-04-03T12:10:00Z</time></trkpt><trkpt lat="43.997340872787504" lon="4.619946671776282"><ele>200.0</ele><time>2026-04-03T12:10:01Z</time></trkpt><trkpt lat="43.99715224221379" lon="4.620112466535414"><ele>200.0</ele><time>2026-04-03T12:10:02Z</time></trkpt><trkpt lat="43.99698318155998" lon="4.620256846075727"><ele>200.0</ele><time>2026-04-03T12:10:03Z</time></trkpt><trkpt lat="43.996843649498864" lon="4.620378478074281"><ele>200.0</ele><time>2026-04-03T12:10:04Z</time></trkpt><trkpt lat="43.99673471025214" lon="4.62049505522488"><ele>201.0</ele><time>2026-04-03T12:10:05Z</time></trkpt><trkpt lat="43.996648751600056" lon="4.620645006216157"><ele>202.0</ele><time>2026-04-03T12:10:06Z</time></trkpt><trkpt lat="43.99662219017385" lon="4.620843120365712"><ele>203.0</ele><time>2026-04-03T12:10:07Z</time></trkpt><trkpt lat="43.99664814790211" lon="4.6210442018623565"><ele>204.0</ele><time>2026-04-03T12:10:08Z</time></trkpt><trkpt lat="43.99674515884126" lon="4.62124907771005"><ele>211.66666666666669</ele><time>2026-04-03T12:10:09Z</time></trkpt><trkpt lat="43.99687865789296" lon="4.621426930577659"><ele>219.33333333333334</ele><time>2026-04-03T12:10:10Z</time></trkpt><trkpt lat="43.99703043684449" lon="4.621599140947722"><ele>227.0</ele><time>2026-04-03T12:10:11Z</time></trkpt><trkpt lat="43.997119624307366" lon="4.621733141317991"><ele>227.0</ele><time>2026-04-03T12:10:12Z</time></trkpt><trkpt lat="43.997154779954286" lon="4.621855964922415"><ele>227.0</ele><time>2026-04-03T12:10:13Z</time></trkpt><trkpt lat="43.99712190930693" lon="4.621979303955609"><ele>227.0</ele><time>2026-04-03T12:10:14Z</time></trkpt><trkpt lat="43.99706575770937" lon="4.622053125954051"><ele>227.0</ele><time>2026-04-03T12:10:15Z</time></trkpt><trkpt lat="43.996958511542566" lon="4.622046008452161"><ele>227.0</ele><time>2026-04-03T12:10:16Z</time></trkpt><trkpt lat="43.996837853392165" lon="4.622017501248549"><ele>226.66666666666669</ele><time>2026-04-03T12:10:17Z</time></trkpt><trkpt lat="43.99670003790657" lon="4.622043746792426"><ele>226.33333333333331</ele><time>2026-04-03T12:10:18Z</time></trkpt><trkpt lat="43.99655592346217" lon="4.622163920399672"><ele>226.0</ele><time>2026-04-03T12:10:19Z</time></trkpt><trkpt lat="43.996386150352336" lon="4.622323466245331"><ele>226.0</ele><time>2026-04-03T12:10:20Z</time></trkpt><trkpt lat="43.99617809284133" lon="4.6224150021146775"><ele>226.0</ele><time>2026-04-03T12:10:21Z</time></trkpt><trkpt lat="43.99596984162237" lon="4.622500283417662"><ele>226.0</ele><time>2026-04-03T12:10:22Z</time></trkpt><trkpt lat="43.99579068224176" lon="4.622540865132626"><ele>225.5</ele><time>2026-04-03T12:10:23Z</time></trkpt><trkpt lat="43.99563552623888" lon="4.622583522075717"><ele>225.0</ele><time>2026-04-03T12:10:24Z</time></trkpt><trkpt lat="43.995494412108904" lon="4.622629597906849"><ele>224.5</ele><time>2026-04-03T12:10:25Z</time></trkpt><trkpt lat="43.9953625191243" lon="4.622668961996143"><ele>224.0</ele><time>2026-04-03T12:10:26Z</time></trkpt><trkpt lat="43.995246426267414" lon="4.622709757393213"><ele>224.0</ele><time>2026-04-03T12:10:27Z</time></trkpt><trkpt lat="43.99515492554233" lon="4.6228056160263415"><ele>224.0</ele><time>2026-04-03T12:10:28Z</time></trkpt><trkpt lat="43.995112949767005" lon="4.622952398282601"><ele>224.0</ele><time>2026-04-03T12:10:29Z</time></trkpt><trkpt lat="43.99512744723133" lon="4.623113829050613"><ele>224.0</ele><time>2026-04-03T12:10:30Z</time></trkpt><trkpt lat="43.9951975063796" lon="4.623265355033399"><ele>225.0</ele><time>2026-04-03T12:10:31Z</time></trkpt><trkpt lat="43.995305368549346" lon="4.623456496064009"><ele>226.0</ele><time>2026-04-03T12:10:32Z</time></trkpt><trkpt lat="43.99538343749131" lon="4.623679805776003"><ele>227.0</ele><time>2026-04-03T12:10:33Z</time></trkpt><trkpt lat="43.995470448868396" lon="4.62385371261076"><ele>225.0</ele><time>2026-04-03T12:10:34Z</time></trkpt><trkpt lat="43.99550163935922" lon="4.624014770251325"><ele>223.0</ele><time>2026-04-03T12:10:35Z</time></trkpt><trkpt lat="43.995510232528545" lon="4.624167541805617"><ele>221.0</ele><time>2026-04-03T12:10:36Z</time></trkpt><trkpt lat="43.99542880448267" lon="4.624307728620481"><ele>219.0</ele><time>2026-04-03T12:10:37Z</time></trkpt><trkpt lat="43.995309051648206" lon="4.624438298771616"><ele>220.0</ele><time>2026-04-03T12:10:38Z</time></trkpt><trkpt lat="43.99514384549474" lon="4.624592320800932"><ele>221.0</ele><time>2026-04-03T12:10:39Z</time></trkpt><trkpt lat="43.994960554274556" lon="4.624734977109933"><ele>222.0</ele><time>2026-04-03T12:10:40Z</time></trkpt><trkpt lat="43.994811288459495" lon="4.624870784113515"><ele>220.25</ele><time>2026-04-03T12:10:41Z</time></trkpt><trkpt lat="43.99470480487304" lon="4.624971352560396"><ele>218.5</ele><time>2026-04-03T12:10:42Z</time></trkpt><trkpt lat="43.994633650537644" lon="4.625078536305578"><ele>216.75</ele><time>2026-04-03T12:10:43Z</time></trkpt><trkpt lat="43.99459928163528" lon="4.6252455475920735"><ele>215.0</ele><time>2026-04-03T12:10:44Z</time></trkpt><trkpt lat="43.994605597228215" lon="4.6254700143426986"><ele>215.0</ele><time>2026-04-03T12:10:45Z</time></trkpt><trkpt lat="43.99462022141662" lon="4.62572942899901"><ele>215.0</ele><time>2026-04-03T12:10:46Z</time></trkpt><trkpt lat="43.99458034077992" lon="4.626005294124775"><ele>215.0</ele><time>2026-04-03T12:10:47Z</time></trkpt><trkpt lat="43.994498927396585" lon="4.626285878193933"><ele>216.33333333333334</ele><time>2026-04-03T12:10:48Z</time></trkpt><trkpt lat="43.994390760824906" lon="4.62656357008919"><ele>217.66666666666669</ele><time>2026-04-03T12:10:49Z</time></trkpt><trkpt lat="43.99429624108993" lon="4.626830495968619"><ele>219.0</ele><time>2026-04-03T12:10:50Z</time></trkpt><trkpt lat="43.99419215227109" lon="4.627054157388768"><ele>218.75</ele><time>2026-04-03T12:10:51Z</time></trkpt><trkpt lat="43.99412171298928" lon="4.6272308639147175"><ele>218.5</ele><time>2026-04-03T12:10:52Z</time></trkpt><trkpt lat="43.99406551397007" lon="4.627365708836201"><ele>218.25</ele><time>2026-04-03T12:10:53Z</time></trkpt><trkpt lat="43.99404331080296" lon="4.6275015035126685"><ele>218.0</ele><time>2026-04-03T12:10:54Z</time></trkpt><trkpt lat="43.9940872969963" lon="4.627655174482089"><ele>221.0</ele><time>2026-04-03T12:10:55Z</time></trkpt><trkpt lat="43.994184469635755" lon="4.6278124209315035"><ele>224.0</ele><time>2026-04-03T12:10:56Z</time></trkpt><trkpt lat="43.994319879876514" lon="4.627986263004881"><ele>227.0</ele><time>2026-04-03T12:10:57Z</time></trkpt><trkpt lat="43.99442888757932" lon="4.628214491522339"><ele>227.0</ele><time>2026-04-03T12:10:58Z</time></trkpt><trkpt lat="43.994503443816875" lon="4.628420186014513"><ele>227.0</ele><time>2026-04-03T12:10:59Z</time></trkpt><trkpt lat="43.99452363148299" lon="4.628650797816198"><ele>227.0</ele><time>2026-04-03T12:11:00Z</time></trkpt><trkpt lat="43.99452505072914" lon="4.628915105443694"><ele>226.33333333333334</ele><time>2026-04-03T12:11:01Z</time></trkpt><trkpt lat="43.99452505073197" lon="4.629186478489679"><ele>225.66666666666669</ele><time>2026-04-03T12:11:02Z</time></trkpt><trkpt lat="43.99454056661363" lon="4.629467000151666"><ele>225.0</ele><time>2026-04-03T12:11:03Z</time></trkpt><trkpt lat="43.99455748602778" lon="4.629731472290354"><ele>226.33333333333331</ele><time>2026-04-03T12:11:04Z</time></trkpt><trkpt lat="43.99459126795564" lon="4.630009501699003"><ele>227.66666666666666</ele><time>2026-04-03T12:11:05Z</time></trkpt><trkpt lat="43.9946451943689" lon="4.63031919559179"><ele>229.0</ele><time>2026-04-03T12:11:06Z</time></trkpt><trkpt lat="43.994696252558796" lon="4.630643196168047"><ele>229.0</ele><time>2026-04-03T12:11:07Z</time></trkpt><trkpt lat="43.994733449029034" lon="4.63093182476799"><ele>229.0</ele><time>2026-04-03T12:11:08Z</time></trkpt><trkpt lat="43.994779284809105" lon="4.631191058027313"><ele>229.0</ele><time>2026-04-03T12:11:09Z</time></trkpt><trkpt lat="43.9948189969873" lon="4.631457685261622"><ele>227.33333333333331</ele><time>2026-04-03T12:11:10Z</time></trkpt><trkpt lat="43.994859100782385" lon="4.631736766199432"><ele>225.66666666666669</ele><time>2026-04-03T12:11:11Z</time></trkpt><trkpt lat="43.99489259230032" lon="4.631991171015679"><ele>224.0</ele><time>2026-04-03T12:11:12Z</time></trkpt><trkpt lat="43.994889103989195" lon="4.632225172879638"><ele>223.0</ele><time>2026-04-03T12:11:13Z</time></trkpt><trkpt lat="43.99484438524933" lon="4.632453777173227"><ele>222.0</ele><time>2026-04-03T12:11:14Z</time></trkpt><trkpt lat="43.99478607644555" lon="4.63269457010985"><ele>221.0</ele><time>2026-04-03T12:11:15Z</time></trkpt><trkpt lat="43.99473363894795" lon="4.632946461495667"><ele>220.66666666666669</ele><time>2026-04-03T12:11:16Z</time></trkpt><trkpt lat="43.99466606528648" lon="4.633168283566834"><ele>220.33333333333331</ele><time>2026-04-03T12:11:17Z</time></trkpt><trkpt lat="43.9946076914336" lon="4.633378093432233"><ele>220.0</ele><time>2026-04-03T12:11:18Z</time></trkpt><trkpt lat="43.99455184674008" lon="4.633571778011149"><ele>220.5</ele><time>2026-04-03T12:11:19Z</time></trkpt><trkpt lat="43.99449745352317" lon="4.633754698260864"><ele>221.0</ele><time>2026-04-03T12:11:20Z</time></trkpt><trkpt lat="43.99444723852526" lon="4.63393150625297"><ele>221.5</ele><time>2026-04-03T12:11:21Z</time></trkpt><trkpt lat="43.99439638585926" lon="4.634123032257295"><ele>222.0</ele><time>2026-04-03T12:11:22Z</time></trkpt><trkpt lat="43.994342025608915" lon="4.6343267039687195"><ele>221.0</ele><time>2026-04-03T12:11:23Z</time></trkpt><trkpt lat="43.99428406837105" lon="4.634533824480663"><ele>220.0</ele><time>2026-04-03T12:11:24Z</time></trkpt><trkpt lat="43.994222871121664" lon="4.634748590362062"><ele>219.0</ele><time>2026-04-03T12:11:25Z</time></trkpt><trkpt lat="43.994164998987486" lon="4.634960477374549"><ele>219.0</ele><time>2026-04-03T12:11:26Z</time></trkpt><trkpt lat="43.99410853873399" lon="4.635165157229056"><ele>219.0</ele><time>2026-04-03T12:11:27Z</time></trkpt><trkpt lat="43.99405747372377" lon="4.635350171981309"><ele>219.0</ele><time>2026-04-03T12:11:28Z</time></trkpt><trkpt lat="43.99401173732034" lon="4.635512948923096"><ele>219.0</ele><time>2026-04-03T12:11:29Z</time></trkpt><trkpt lat="43.99397326687347" lon="4.635665469191965"><ele>219.79999999999998</ele><time>2026-04-03T12:11:30Z</time></trkpt><trkpt lat="43.99393641474634" lon="4.635815795210547"><ele>220.59999999999997</ele><time>2026-04-03T12:11:31Z</time></trkpt><trkpt lat="43.99389563721966" lon="4.635968661409413"><ele>221.4</ele><time>2026-04-03T12:11:32Z</time></trkpt><trkpt lat="43.993864725866175" lon="4.636117452456978"><ele>222.2</ele><time>2026-04-03T12:11:33Z</time></trkpt><trkpt lat="43.993853057354244" lon="4.636254472438922"><ele>223.0</ele><time>2026-04-03T12:11:34Z</time></trkpt><trkpt lat="43.99385175931907" lon="4.636389814323292"><ele>223.2</ele><time>2026-04-03T12:11:35Z</time></trkpt><trkpt lat="43.9938571381119" lon="4.6365378367838685"><ele>223.4</ele><time>2026-04-03T12:11:36Z</time></trkpt><trkpt lat="43.993872485817874" lon="4.636697367228542"><ele>223.59999999999997</ele><time>2026-04-03T12:11:36.999Z</time></trkpt><trkpt lat="43.9938896746859" lon="4.636843490882081"><ele>223.79999999999998</ele><time>2026-04-03T12:11:37.999Z</time></trkpt><trkpt lat="43.99390438962448" lon="4.636979017602105"><ele>224.0</ele><time>2026-04-03T12:11:38.999Z</time></trkpt><trkpt lat="43.993913461544025" lon="4.63710636375335"><ele>224.00000000000003</ele><time>2026-04-03T12:11:39.999Z</time></trkpt><trkpt lat="43.993926708796195" lon="4.637237094218305"><ele>224.0</ele><time>2026-04-03T12:11:40.999Z</time></trkpt><trkpt lat="43.99393819194043" lon="4.637364382658929"><ele>224.0</ele><time>2026-04-03T12:11:41.999Z</time></trkpt><trkpt lat="43.99394779231362" lon="4.6374757101643125"><ele>224.0</ele><time>2026-04-03T12:11:42.999Z</time></trkpt><trkpt lat="43.993959147341485" lon="4.637594439028383"><ele>224.00000000000003</ele><time>2026-04-03T12:11:44.999Z</time></trkpt><trkpt lat="43.99396593322382" lon="4.637725986474119"><ele>224.0</ele><time>2026-04-03T12:11:48.999Z</time></trkpt><trkpt lat="43.99397509889265" lon="4.637841477739203"><ele>226.5</ele><time>2026-04-03T12:11:50.999Z</time></trkpt><trkpt lat="43.99432091828632" lon="4.637945429442151"><ele>229.0</ele><time>2026-04-03T12:11:53.999Z</time></trkpt><trkpt lat="43.994406190982346" lon="4.638016161225169"><ele>229.0</ele><time>2026-04-03T12:11:55.999Z</time></trkpt><trkpt lat="43.99441619860292" lon="4.638131950482963"><ele>228.99999999999997</ele><time>2026-04-03T12:11:58.999Z</time></trkpt><trkpt lat="43.994377387202654" lon="4.638247544162521"><ele>228.99999999999997</ele><time>2026-04-03T12:12:01Z</time></trkpt><trkpt lat="43.9943584764589" lon="4.638432819744883"><ele>229.0</ele><time>2026-04-03T12:12:03Z</time></trkpt><trkpt lat="43.99435501532009" lon="4.638562610031264"><ele>229.0</ele><time>2026-04-03T12:12:04Z</time></trkpt><trkpt lat="43.99434819154336" lon="4.63870566539398"><ele>230.5</ele><time>2026-04-03T12:12:05Z</time></trkpt><trkpt lat="43.99433523335389" lon="4.638869237622081"><ele>232.0</ele><time>2026-04-03T12:12:06Z</time></trkpt><trkpt lat="43.994326364211794" lon="4.6390386637714265"><ele>233.5</ele><time>2026-04-03T12:12:07Z</time></trkpt><trkpt lat="43.9943099042234" lon="4.639228599341057"><ele>235.0</ele><time>2026-04-03T12:12:08Z</time></trkpt><trkpt lat="43.99429861803484" lon="4.639393581199289"><ele>236.75</ele><time>2026-04-03T12:12:09Z</time></trkpt><trkpt lat="43.99428331050442" lon="4.639555805316603"><ele>238.5</ele><time>2026-04-03T12:12:10Z</time></trkpt><trkpt lat="43.99427154139647" lon="4.639695355489558"><ele>240.25</ele><time>2026-04-03T12:12:11Z</time></trkpt><trkpt lat="43.994260255089564" lon="4.639852645376461"><ele>242.0</ele><time>2026-04-03T12:12:12Z</time></trkpt><trkpt lat="43.994236498682284" lon="4.640036795622879"><ele>242.0</ele><time>2026-04-03T12:12:13Z</time></trkpt><trkpt lat="43.99422546773647" lon="4.640194751208042"><ele>242.0</ele><time>2026-04-03T12:12:14Z</time></trkpt><trkpt lat="43.99420726040993" lon="4.640374237536071"><ele>242.0</ele><time>2026-04-03T12:12:15Z</time></trkpt><trkpt lat="43.99419239983971" lon="4.640545493740724"><ele>242.0</ele><time>2026-04-03T12:12:16Z</time></trkpt><trkpt lat="43.99417381884749" lon="4.640691080137127"><ele>242.0</ele><time>2026-04-03T12:12:17Z</time></trkpt><trkpt lat="43.994158391715416" lon="4.64085450604634"><ele>242.0</ele><time>2026-04-03T12:12:18Z</time></trkpt><trkpt lat="43.994138670864736" lon="4.640978766533241"><ele>242.0</ele><time>2026-04-03T12:12:19Z</time></trkpt><trkpt lat="43.99413214805886" lon="4.641131642904663"><ele>242.0</ele><time>2026-04-03T12:12:20Z</time></trkpt><trkpt lat="43.994117943580065" lon="4.641296925269187"><ele>242.0</ele><time>2026-04-03T12:12:21Z</time></trkpt><trkpt lat="43.994110485014545" lon="4.641444718251883"><ele>242.2</ele><time>2026-04-03T12:12:22Z</time></trkpt><trkpt lat="43.99410069903978" lon="4.641587280261443"><ele>242.39999999999998</ele><time>2026-04-03T12:12:23Z</time></trkpt><trkpt lat="43.99409398022537" lon="4.641734856383052"><ele>242.60000000000002</ele><time>2026-04-03T12:12:24Z</time></trkpt><trkpt lat="43.99407603875502" lon="4.641896598172343"><ele>242.8</ele><time>2026-04-03T12:12:25Z</time></trkpt><trkpt lat="43.99405703101945" lon="4.6420573382354995"><ele>243.0</ele><time>2026-04-03T12:12:26Z</time></trkpt><trkpt lat="43.99404437311689" lon="4.642231689254323"><ele>243.0</ele><time>2026-04-03T12:12:27Z</time></trkpt><trkpt lat="43.994037472103926" lon="4.642401871324647"><ele>243.0</ele><time>2026-04-03T12:12:28Z</time></trkpt><trkpt lat="43.99402187491463" lon="4.642578572700844"><ele>243.0</ele><time>2026-04-03T12:12:29Z</time></trkpt><trkpt lat="43.994012019746044" lon="4.642741721280457"><ele>243.0</ele><time>2026-04-03T12:12:30Z</time></trkpt><trkpt lat="43.993998784373325" lon="4.642915840349274"><ele>242.60000000000002</ele><time>2026-04-03T12:12:31Z</time></trkpt><trkpt lat="43.993987717601016" lon="4.643053269387364"><ele>242.20000000000002</ele><time>2026-04-03T12:12:32Z</time></trkpt><trkpt lat="43.993977694537264" lon="4.643171871818685"><ele>241.8</ele><time>2026-04-03T12:12:33Z</time></trkpt><trkpt lat="43.99396799248271" lon="4.643311469409113"><ele>241.4</ele><time>2026-04-03T12:12:35Z</time></trkpt><trkpt lat="43.993965191253004" lon="4.6434502124091885"><ele>241.0</ele><time>2026-04-03T12:12:37Z</time></trkpt><trkpt lat="43.99396064478078" lon="4.643619677588199"><ele>241.20000000000002</ele><time>2026-04-03T12:12:39Z</time></trkpt><trkpt lat="43.993948897026634" lon="4.643729179728281"><ele>241.40000000000003</ele><time>2026-04-03T12:12:40Z</time></trkpt><trkpt lat="43.99391526738488" lon="4.643872998863262"><ele>241.6</ele><time>2026-04-03T12:12:42Z</time></trkpt><trkpt lat="43.99388248385982" lon="4.64398268088848"><ele>241.8</ele><time>2026-04-03T12:13:14Z</time></trkpt><trkpt lat="43.99384431405774" lon="4.644100122767163"><ele>242.0</ele><time>2026-04-03T12:13:17Z</time></trkpt><trkpt lat="43.99385445124626" lon="4.644228892351921"><ele>242.0</ele><time>2026-04-03T12:13:18Z</time></trkpt><trkpt lat="43.99385368168932" lon="4.644380824930273"><ele>242.0</ele><time>2026-04-03T12:13:19Z</time></trkpt><trkpt lat="43.99384376968258" lon="4.644527136445453"><ele>242.0</ele><time>2026-04-03T12:13:20Z</time></trkpt><trkpt lat="43.99383405915402" lon="4.644685516956142"><ele>242.0</ele><time>2026-04-03T12:13:21Z</time></trkpt><trkpt lat="43.99382538928938" lon="4.644847470650165"><ele>242.0</ele><time>2026-04-03T12:13:22Z</time></trkpt><trkpt lat="43.99380328749101" lon="4.645015514585419"><ele>242.2</ele><time>2026-04-03T12:13:23Z</time></trkpt><trkpt lat="43.99378858657747" lon="4.64518016128581"><ele>242.39999999999998</ele><time>2026-04-03T12:13:24Z</time></trkpt><trkpt lat="43.99378422302758" lon="4.645334647925908"><ele>242.60000000000002</ele><time>2026-04-03T12:13:25Z</time></trkpt><trkpt lat="43.99377022867263" lon="4.645468929108407"><ele>242.8</ele><time>2026-04-03T12:13:26Z</time></trkpt><trkpt lat="43.99375612805076" lon="4.6455874457213415"><ele>243.0</ele><time>2026-04-03T12:13:27Z</time></trkpt><trkpt lat="43.993739134850784" lon="4.645714055991083"><ele>242.4</ele><time>2026-04-03T12:13:28Z</time></trkpt><trkpt lat="43.993721777031" lon="4.645873882724875"><ele>241.8</ele><time>2026-04-03T12:13:29Z</time></trkpt><trkpt lat="43.99370332734805" lon="4.646025623651291"><ele>241.2</ele><time>2026-04-03T12:13:30Z</time></trkpt><trkpt lat="43.99370312277189" lon="4.646144336237304"><ele>240.6</ele><time>2026-04-03T12:13:31Z</time></trkpt><trkpt lat="43.99372164068172" lon="4.6462386853045174"><ele>240.0</ele><time>2026-04-03T12:13:32Z</time></trkpt><trkpt lat="43.99379160062235" lon="4.646345519372894"><ele>239.0</ele><time>2026-04-03T12:13:34Z</time></trkpt><trkpt lat="43.99385623225563" lon="4.646405359698233"><ele>238.0</ele><time>2026-04-03T12:13:35Z</time></trkpt><trkpt lat="43.99392760803746" lon="4.646480776727067"><ele>237.0</ele><time>2026-04-03T12:13:36Z</time></trkpt><trkpt lat="43.99395687007263" lon="4.6465847220301235"><ele>236.0</ele><time>2026-04-03T12:13:37Z</time></trkpt><trkpt lat="43.99397419294339" lon="4.646698632846497"><ele>235.0</ele><time>2026-04-03T12:13:38Z</time></trkpt><trkpt lat="43.99406489788616" lon="4.646805479107417"><ele>235.0</ele><time>2026-04-03T12:13:40Z</time></trkpt><trkpt lat="43.994144195560835" lon="4.64681856417331"><ele>235.0</ele><time>2026-04-03T12:13:41Z</time></trkpt><trkpt lat="43.9942378610284" lon="4.64681789532739"><ele>235.0</ele><time>2026-04-03T12:13:42Z</time></trkpt><trkpt lat="43.994332008933426" lon="4.646786518124253"><ele>235.0</ele><time>2026-04-03T12:13:43Z</time></trkpt><trkpt lat="43.99441317706689" lon="4.646782169383191"><ele>235.0</ele><time>2026-04-03T12:13:44Z</time></trkpt><trkpt lat="43.99452471527631" lon="4.646804601394975"><ele>235.2</ele><time>2026-04-03T12:13:45Z</time></trkpt><trkpt lat="43.9946330060151" lon="4.646850944618136"><ele>235.4</ele><time>2026-04-03T12:13:46Z</time></trkpt><trkpt lat="43.99472498963838" lon="4.646904561770413"><ele>235.60000000000002</ele><time>2026-04-03T12:13:47Z</time></trkpt><trkpt lat="43.99481172217543" lon="4.646947713014314"><ele>235.8</ele><time>2026-04-03T12:13:48Z</time></trkpt><trkpt lat="43.99489959598169" lon="4.646980463201494"><ele>236.0</ele><time>2026-04-03T12:13:49Z</time></trkpt><trkpt lat="43.99497395876496" lon="4.646992732672045"><ele>235.5</ele><time>2026-04-03T12:13:50Z</time></trkpt><trkpt lat="43.995044336137106" lon="4.6470638018495904"><ele>235.0</ele><time>2026-04-03T12:13:52Z</time></trkpt><trkpt lat="43.99506048536007" lon="4.647284765112351"><ele>234.5</ele><time>2026-04-03T12:13:54Z</time></trkpt><trkpt lat="43.995104183495876" lon="4.647437573921856"><ele>234.0</ele><time>2026-04-03T12:13:55Z</time></trkpt><trkpt lat="43.99514872974946" lon="4.647589871175385"><ele>234.0</ele><time>2026-04-03T12:13:56Z</time></trkpt><trkpt lat="43.9951841220874" lon="4.647749729942888"><ele>234.0</ele><time>2026-04-03T12:13:57Z</time></trkpt><trkpt lat="43.995192824904706" lon="4.647861649765501"><ele>234.0</ele><time>2026-04-03T12:13:58Z</time></trkpt><trkpt lat="43.99520540660374" lon="4.647974101209211"><ele>234.0</ele><time>2026-04-03T12:13:59Z</time></trkpt><trkpt lat="43.995236250181044" lon="4.648074008590516"><ele>234.0</ele><time>2026-04-03T12:14:00Z</time></trkpt><trkpt lat="43.99527379678777" lon="4.648181570891803"><ele>234.0</ele><time>2026-04-03T12:14:00.999Z</time></trkpt><trkpt lat="43.99535278566624" lon="4.648312193816174"><ele>233.79999999999998</ele><time>2026-04-03T12:14:01.999Z</time></trkpt><trkpt lat="43.99544717841329" lon="4.64844076997565"><ele>233.59999999999997</ele><time>2026-04-03T12:14:02.999Z</time></trkpt><trkpt lat="43.99550099016396" lon="4.648553165858426"><ele>233.4</ele><time>2026-04-03T12:14:03.999Z</time></trkpt><trkpt lat="43.995537107161965" lon="4.648693106383198"><ele>233.2</ele><time>2026-04-03T12:14:04.999Z</time></trkpt><trkpt lat="43.99554211228933" lon="4.648839916799098"><ele>233.0</ele><time>2026-04-03T12:14:06Z</time></trkpt><trkpt lat="43.99555030894027" lon="4.6489448715300705"><ele>233.8</ele><time>2026-04-03T12:14:07Z</time></trkpt><trkpt lat="43.9955913379737" lon="4.649027619896699"><ele>234.60000000000002</ele><time>2026-04-03T12:14:08Z</time></trkpt><trkpt lat="43.99564999080732" lon="4.649133375720684"><ele>235.39999999999998</ele><time>2026-04-03T12:14:09Z</time></trkpt><trkpt lat="43.995725245523154" lon="4.649288880515503"><ele>236.2</ele><time>2026-04-03T12:14:10Z</time></trkpt><trkpt lat="43.99581321158084" lon="4.6494179977004055"><ele>237.0</ele><time>2026-04-03T12:14:11Z</time></trkpt><trkpt lat="43.995896524933414" lon="4.649554282292985"><ele>237.5</ele><time>2026-04-03T12:14:12Z</time></trkpt><trkpt lat="43.995976700253635" lon="4.649694243186869"><ele>238.0</ele><time>2026-04-03T12:14:13Z</time></trkpt><trkpt lat="43.99605212616473" lon="4.6498234540524095"><ele>238.5</ele><time>2026-04-03T12:14:14Z</time></trkpt><trkpt lat="43.99613182885671" lon="4.649954611439919"><ele>239.0</ele><time>2026-04-03T12:14:15Z</time></trkpt><trkpt lat="43.99620259642709" lon="4.650089751778371"><ele>239.0</ele><time>2026-04-03T12:14:16Z</time></trkpt><trkpt lat="43.99625134535688" lon="4.6502168871902025"><ele>238.99999999999997</ele><time>2026-04-03T12:14:17Z</time></trkpt><trkpt lat="43.996272552136" lon="4.650376631009978"><ele>238.99999999999997</ele><time>2026-04-03T12:14:19Z</time></trkpt><trkpt lat="43.996273215261894" lon="4.650474120930916"><ele>239.0</ele><time>2026-04-03T12:14:20Z</time></trkpt><trkpt lat="43.99631679652805" lon="4.650573758881651"><ele>239.0</ele><time>2026-04-03T12:14:21Z</time></trkpt><trkpt lat="43.99636308761523" lon="4.650663855876812"><ele>238.83333333333334</ele><time>2026-04-03T12:14:22Z</time></trkpt><trkpt lat="43.99637706826701" lon="4.650769343164175"><ele>238.66666666666669</ele><time>2026-04-03T12:14:23Z</time></trkpt><trkpt lat="43.99636282854404" lon="4.650859058799757"><ele>238.5</ele><time>2026-04-03T12:14:24Z</time></trkpt><trkpt lat="43.99633142568578" lon="4.650960310692979"><ele>238.33333333333331</ele><time>2026-04-03T12:14:25Z</time></trkpt><trkpt lat="43.996275949305854" lon="4.6510555540334195"><ele>238.16666666666666</ele><time>2026-04-03T12:14:26Z</time></trkpt><trkpt lat="43.996219304738645" lon="4.651164354142456"><ele>238.0</ele><time>2026-04-03T12:14:27Z</time></trkpt><trkpt lat="43.996186196513555" lon="4.651270158177637"><ele>237.49999999999997</ele><time>2026-04-03T12:14:28Z</time></trkpt><trkpt lat="43.99616436184289" lon="4.65139425695499"><ele>237.0</ele><time>2026-04-03T12:14:29Z</time></trkpt><trkpt lat="43.99615507301806" lon="4.651508700768062"><ele>236.5</ele><time>2026-04-03T12:14:30Z</time></trkpt><trkpt lat="43.9961528102779" lon="4.651608865285888"><ele>236.0</ele><time>2026-04-03T12:14:31Z</time></trkpt><trkpt lat="43.99616036324221" lon="4.651722742145805"><ele>235.49999999999997</ele><time>2026-04-03T12:14:32Z</time></trkpt><trkpt lat="43.996160439753005" lon="4.651853139983945"><ele>235.0</ele><time>2026-04-03T12:14:33Z</time></trkpt><trkpt lat="43.9961390770493" lon="4.651983985343643"><ele>235.0</ele><time>2026-04-03T12:14:34Z</time></trkpt><trkpt lat="43.99610644354951" lon="4.652111400492521"><ele>235.0</ele><time>2026-04-03T12:14:35Z</time></trkpt><trkpt lat="43.99607643001462" lon="4.652240966302211"><ele>235.0</ele><time>2026-04-03T12:14:36Z</time></trkpt><trkpt lat="43.996064243293105" lon="4.6523905629786935"><ele>235.0</ele><time>2026-04-03T12:14:37Z</time></trkpt><trkpt lat="43.99606222407399" lon="4.652531735631059"><ele>235.0</ele><time>2026-04-03T12:14:38Z</time></trkpt><trkpt lat="43.996063875139036" lon="4.652665356084961"><ele>234.99999999999997</ele><time>2026-04-03T12:14:39Z</time></trkpt><trkpt lat="43.99608955114476" lon="4.6527798997078404"><ele>235.0</ele><time>2026-04-03T12:14:40Z</time></trkpt><trkpt lat="43.996125286704185" lon="4.652881364680408"><ele>235.0</ele><time>2026-04-03T12:14:41Z</time></trkpt><trkpt lat="43.99616434321358" lon="4.652977485520253"><ele>235.0</ele><time>2026-04-03T12:14:42Z</time></trkpt><trkpt lat="43.99618410168779" lon="4.653083557491438"><ele>234.99999999999997</ele><time>2026-04-03T12:14:43Z</time></trkpt><trkpt lat="43.99618502306619" lon="4.653193411266632"><ele>235.0</ele><time>2026-04-03T12:14:44Z</time></trkpt><trkpt lat="43.996184629993444" lon="4.653328378245375"><ele>234.6</ele><time>2026-04-03T12:14:45Z</time></trkpt><trkpt lat="43.99618831257964" lon="4.653464509181064"><ele>234.2</ele><time>2026-04-03T12:14:46Z</time></trkpt><trkpt lat="43.99619912751796" lon="4.653593891003537"><ele>233.8</ele><time>2026-04-03T12:14:47Z</time></trkpt><trkpt lat="43.99621749685769" lon="4.653736359787371"><ele>233.4</ele><time>2026-04-03T12:14:48Z</time></trkpt><trkpt lat="43.99624310330944" lon="4.653888262910472"><ele>233.0</ele><time>2026-04-03T12:14:49Z</time></trkpt><trkpt lat="43.99625066809884" lon="4.654036674974461"><ele>232.83333333333334</ele><time>2026-04-03T12:14:50Z</time></trkpt><trkpt lat="43.99625768298138" lon="4.654156285107662"><ele>232.66666666666669</ele><time>2026-04-03T12:14:51Z</time></trkpt><trkpt lat="43.99626428933368" lon="4.6543034035540485"><ele>232.5</ele><time>2026-04-03T12:14:52Z</time></trkpt><trkpt lat="43.99626230303876" lon="4.654412090390901"><ele>232.33333333333331</ele><time>2026-04-03T12:14:53Z</time></trkpt><trkpt lat="43.99625482643253" lon="4.654518231388524"><ele>232.16666666666666</ele><time>2026-04-03T12:14:54Z</time></trkpt><trkpt lat="43.9962482717711" lon="4.654628758031953"><ele>232.0</ele><time>2026-04-03T12:14:55Z</time></trkpt><trkpt lat="43.996249334672186" lon="4.654744475262434"><ele>231.5</ele><time>2026-04-03T12:14:56Z</time></trkpt><trkpt lat="43.996290751105235" lon="4.6548483969574965"><ele>231.0</ele><time>2026-04-03T12:14:57Z</time></trkpt><trkpt lat="43.996354508672425" lon="4.655008580929227"><ele>230.5</ele><time>2026-04-03T12:14:58Z</time></trkpt><trkpt lat="43.9964166902879" lon="4.655166752752562"><ele>230.0</ele><time>2026-04-03T12:14:59Z</time></trkpt><trkpt lat="43.99645938953293" lon="4.655308088111191"><ele>229.16666666666669</ele><time>2026-04-03T12:15:00Z</time></trkpt><trkpt lat="43.99647728638485" lon="4.655424269158477"><ele>228.33333333333334</ele><time>2026-04-03T12:15:01Z</time></trkpt><trkpt lat="43.996493654328255" lon="4.655521952631764"><ele>227.5</ele><time>2026-04-03T12:15:02Z</time></trkpt><trkpt lat="43.996500284165144" lon="4.655612105547375"><ele>226.66666666666669</ele><time>2026-04-03T12:15:03Z</time></trkpt><trkpt lat="43.996454817147324" lon="4.655696710946763"><ele>225.83333333333334</ele><time>2026-04-03T12:15:04Z</time></trkpt><trkpt lat="43.99638169283809" lon="4.65582543280523"><ele>225.0</ele><time>2026-04-03T12:15:05Z</time></trkpt><trkpt lat="43.996323766662634" lon="4.65595265981991"><ele>225.0</ele><time>2026-04-03T12:15:06Z</time></trkpt><trkpt lat="43.99630620720895" lon="4.656089490632006"><ele>225.0</ele><time>2026-04-03T12:15:07Z</time></trkpt><trkpt lat="43.99629373106157" lon="4.656254502409255"><ele>225.0</ele><time>2026-04-03T12:15:08Z</time></trkpt><trkpt lat="43.996276744309675" lon="4.656364889867032"><ele>225.0</ele><time>2026-04-03T12:15:09Z</time></trkpt><trkpt lat="43.99623366169731" lon="4.656443122798679"><ele>225.0</ele><time>2026-04-03T12:15:10Z</time></trkpt><trkpt lat="43.99613840730166" lon="4.656548044677008"><ele>224.2</ele><time>2026-04-03T12:15:11Z</time></trkpt><trkpt lat="43.99605505065938" lon="4.656610459148614"><ele>223.4</ele><time>2026-04-03T12:15:12Z</time></trkpt><trkpt lat="43.9959670292054" lon="4.656636589299499"><ele>222.60000000000002</ele><time>2026-04-03T12:15:13Z</time></trkpt><trkpt lat="43.99590374721128" lon="4.656658511819831"><ele>221.8</ele><time>2026-04-03T12:15:14Z</time></trkpt><trkpt lat="43.99581627983208" lon="4.65676457661056"><ele>221.0</ele><time>2026-04-03T12:15:15Z</time></trkpt><trkpt lat="43.99575196393518" lon="4.6569068976586765"><ele>221.0</ele><time>2026-04-03T12:15:16Z</time></trkpt><trkpt lat="43.99570412170988" lon="4.657028996158877"><ele>221.00000000000003</ele><time>2026-04-03T12:15:17Z</time></trkpt><trkpt lat="43.99566827654241" lon="4.6571400162002785"><ele>221.00000000000003</ele><time>2026-04-03T12:15:18Z</time></trkpt><trkpt lat="43.99563698672937" lon="4.6572352709705696"><ele>221.0</ele><time>2026-04-03T12:15:19Z</time></trkpt><trkpt lat="43.995599442004945" lon="4.657347804378322"><ele>221.0</ele><time>2026-04-03T12:15:20Z</time></trkpt><trkpt lat="43.99555200699713" lon="4.6574842158355185"><ele>221.0</ele><time>2026-04-03T12:15:21Z</time></trkpt><trkpt lat="43.99548254702983" lon="4.657604019508869"><ele>221.00000000000003</ele><time>2026-04-03T12:15:22Z</time></trkpt><trkpt lat="43.9954042949598" lon="4.6577138028923315"><ele>221.00000000000003</ele><time>2026-04-03T12:15:23Z</time></trkpt><trkpt lat="43.995374986791695" lon="4.657834123460825"><ele>221.0</ele><time>2026-04-03T12:15:24Z</time></trkpt><trkpt lat="43.9953762247374" lon="4.65795297946784"><ele>221.0</ele><time>2026-04-03T12:15:25Z</time></trkpt><trkpt lat="43.99538903306945" lon="4.658051081758871"><ele>220.71428571428572</ele><time>2026-04-03T12:15:26Z</time></trkpt><trkpt lat="43.99532280464611" lon="4.65811303436718"><ele>220.42857142857144</ele><time>2026-04-03T12:15:54Z</time></trkpt><trkpt lat="43.99525488419703" lon="4.658103291551601"><ele>220.14285714285717</ele><time>2026-04-03T12:15:55Z</time></trkpt><trkpt lat="43.99519413587095" lon="4.658074969141619"><ele>219.85714285714286</ele><time>2026-04-03T12:15:56Z</time></trkpt><trkpt lat="43.99513510835113" lon="4.658034466984245"><ele>219.57142857142856</ele><time>2026-04-03T12:15:57Z</time></trkpt><trkpt lat="43.99505591516415" lon="4.658024608120678"><ele>219.2857142857143</ele><time>2026-04-03T12:15:58Z</time></trkpt><trkpt lat="43.99497695302774" lon="4.658020487656769"><ele>219.0</ele><time>2026-04-03T12:15:59Z</time></trkpt><trkpt lat="43.9948796351738" lon="4.658029453714018"><ele>219.0</ele><time>2026-04-03T12:16:00Z</time></trkpt><trkpt lat="43.99479735948967" lon="4.658043807119088"><ele>218.99999999999997</ele><time>2026-04-03T12:16:01Z</time></trkpt><trkpt lat="43.994698324544764" lon="4.658025853956058"><ele>218.99999999999997</ele><time>2026-04-03T12:16:02Z</time></trkpt><trkpt lat="43.99460775508798" lon="4.657984186748003"><ele>219.0</ele><time>2026-04-03T12:16:03Z</time></trkpt><trkpt lat="43.994513093975534" lon="4.657938779945353"><ele>219.0</ele><time>2026-04-03T12:16:04Z</time></trkpt><trkpt lat="43.99442070013264" lon="4.657935211658483"><ele>219.0</ele><time>2026-04-03T12:16:05Z</time></trkpt><trkpt lat="43.99432703199737" lon="4.657951123794472"><ele>218.99999999999997</ele><time>2026-04-03T12:16:06Z</time></trkpt><trkpt lat="43.994228490171025" lon="4.657947730775908"><ele>218.99999999999997</ele><time>2026-04-03T12:16:07Z</time></trkpt><trkpt lat="43.99413943662091" lon="4.657948164746043"><ele>219.0</ele><time>2026-04-03T12:16:07.999Z</time></trkpt><trkpt lat="43.99402855883744" lon="4.6579727277353955"><ele>219.0</ele><time>2026-04-03T12:16:08.999Z</time></trkpt><trkpt lat="43.99390657591444" lon="4.657998310678003"><ele>217.6</ele><time>2026-04-03T12:16:09.999Z</time></trkpt><trkpt lat="43.99380078739465" lon="4.657985831482704"><ele>216.2</ele><time>2026-04-03T12:16:10.999Z</time></trkpt><trkpt lat="43.993708814425176" lon="4.6579910442963595"><ele>214.79999999999998</ele><time>2026-04-03T12:16:12Z</time></trkpt><trkpt lat="43.99362691343425" lon="4.657987780331674"><ele>213.39999999999998</ele><time>2026-04-03T12:16:13Z</time></trkpt><trkpt lat="43.993522074558534" lon="4.657964988135545"><ele>212.0</ele><time>2026-04-03T12:16:15Z</time></trkpt><trkpt lat="43.9934579710319" lon="4.657938065003091"><ele>212.00000000000003</ele><time>2026-04-03T12:16:16Z</time></trkpt><trkpt lat="43.99337018851954" lon="4.657934960675538"><ele>212.0</ele><time>2026-04-03T12:16:17Z</time></trkpt><trkpt lat="43.993278270762566" lon="4.657963008746248"><ele>212.0</ele><time>2026-04-03T12:16:18Z</time></trkpt><trkpt lat="43.99320218587507" lon="4.657987372240165"><ele>212.0</ele><time>2026-04-03T12:16:19Z</time></trkpt><trkpt lat="43.99315114724975" lon="4.658088693780545"><ele>212.00000000000003</ele><time>2026-04-03T12:16:21Z</time></trkpt><trkpt lat="43.99312123213821" lon="4.658210347814557"><ele>212.0</ele><time>2026-04-03T12:16:22Z</time></trkpt><trkpt lat="43.993077175846295" lon="4.658343816367378"><ele>210.0</ele><time>2026-04-03T12:16:23Z</time></trkpt><trkpt lat="43.9930495394057" lon="4.658450610431181"><ele>208.0</ele><time>2026-04-03T12:16:24Z</time></trkpt><trkpt lat="43.993035305450206" lon="4.658588008871659"><ele>206.0</ele><time>2026-04-03T12:16:25Z</time></trkpt><trkpt lat="43.99303326188528" lon="4.658750016279041"><ele>204.0</ele><time>2026-04-03T12:16:26Z</time></trkpt><trkpt lat="43.99301817221412" lon="4.658913895020374"><ele>202.0</ele><time>2026-04-03T12:16:27Z</time></trkpt><trkpt lat="43.99298482058818" lon="4.659079325587075"><ele>201.99999999999997</ele><time>2026-04-03T12:16:28Z</time></trkpt><trkpt lat="43.99295093455774" lon="4.659209497885979"><ele>202.0</ele><time>2026-04-03T12:16:29Z</time></trkpt><trkpt lat="43.99292846043623" lon="4.659316361287647"><ele>202.0</ele><time>2026-04-03T12:16:30Z</time></trkpt><trkpt lat="43.99289670076834" lon="4.659399355634744"><ele>202.0</ele><time>2026-04-03T12:16:31Z</time></trkpt><trkpt lat="43.992803078196346" lon="4.6594682497317255"><ele>201.99999999999997</ele><time>2026-04-03T12:16:33Z</time></trkpt><trkpt lat="43.99272759489853" lon="4.659508000189377"><ele>202.0</ele><time>2026-04-03T12:16:35Z</time></trkpt><trkpt lat="43.99261369232369" lon="4.659593674964197"><ele>202.49999999999997</ele><time>2026-04-03T12:16:37Z</time></trkpt><trkpt lat="43.992534554394204" lon="4.659648708203296"><ele>203.0</ele><time>2026-04-03T12:16:38Z</time></trkpt><trkpt lat="43.992453229722805" lon="4.659732462941973"><ele>203.5</ele><time>2026-04-03T12:16:39Z</time></trkpt><trkpt lat="43.99237372132979" lon="4.659805445930944"><ele>204.0</ele><time>2026-04-03T12:16:40Z</time></trkpt><trkpt lat="43.99230328387493" lon="4.659871403232006"><ele>204.49999999999997</ele><time>2026-04-03T12:16:41Z</time></trkpt><trkpt lat="43.99224009792072" lon="4.659925567444816"><ele>205.0</ele><time>2026-04-03T12:16:42Z</time></trkpt><trkpt lat="43.992148343030216" lon="4.6600385731597385"><ele>203.4</ele><time>2026-04-03T12:16:44Z</time></trkpt><trkpt lat="43.99210446644389" lon="4.66017129579626"><ele>201.8</ele><time>2026-04-03T12:16:46Z</time></trkpt><trkpt lat="43.992097337927646" lon="4.66027043178215"><ele>200.2</ele><time>2026-04-03T12:16:48Z</time></trkpt><trkpt lat="43.99210354573117" lon="4.660150754032844"><ele>198.6</ele><time>2026-04-03T12:17:01Z</time></trkpt><trkpt lat="43.992129753925084" lon="4.6600153611628965"><ele>197.0</ele><time>2026-04-03T12:17:03Z</time></trkpt><trkpt lat="43.99221705046558" lon="4.659931803164332"><ele>197.0</ele><time>2026-04-03T12:17:05Z</time></trkpt><trkpt lat="43.99230158933268" lon="4.65983742276861"><ele>197.0</ele><time>2026-04-03T12:17:07Z</time></trkpt><trkpt lat="43.99240991614817" lon="4.659761795544127"><ele>197.0</ele><time>2026-04-03T12:17:09Z</time></trkpt><trkpt lat="43.992518379242256" lon="4.65967327470821"><ele>197.0</ele><time>2026-04-03T12:17:11Z</time></trkpt><trkpt lat="43.99261015707299" lon="4.659603145057174"><ele>197.00000000000003</ele><time>2026-04-03T12:17:13Z</time></trkpt><trkpt lat="43.99253331759209" lon="4.659515977141479"><ele>197.0</ele><time>2026-04-03T12:17:16Z</time></trkpt><trkpt lat="43.992411837131264" lon="4.659529103088908"><ele>197.0</ele><time>2026-04-03T12:17:18Z</time></trkpt><trkpt lat="43.992341443735604" lon="4.6595630749132315"><ele>197.0</ele><time>2026-04-03T12:17:19Z</time></trkpt><trkpt lat="43.99227313050319" lon="4.659589809233322"><ele>197.00000000000003</ele><time>2026-04-03T12:17:20Z</time></trkpt><trkpt lat="43.992207574401036" lon="4.659598119076282"><ele>197.0</ele><time>2026-04-03T12:17:21Z</time></trkpt><trkpt lat="43.99210071352195" lon="4.659579805219824"><ele>197.0</ele><time>2026-04-03T12:17:23Z</time></trkpt><trkpt lat="43.99204440953771" lon="4.659529137059846"><ele>197.0</ele><time>2026-04-03T12:17:25Z</time></trkpt><trkpt lat="43.99196528084482" lon="4.659560176048368"><ele>197.0</ele><time>2026-04-03T12:17:29Z</time></trkpt><trkpt lat="43.99214196920247" lon="4.6596034381339875"><ele>197.0</ele><time>2026-04-03T12:17:32Z</time></trkpt><trkpt lat="43.99222558094977" lon="4.659591463768597"><ele>197.0</ele><time>2026-04-03T12:17:33Z</time></trkpt><trkpt lat="43.99229763663525" lon="4.6595858624077575"><ele>197.0</ele><time>2026-04-03T12:17:34Z</time></trkpt><trkpt lat="43.99237245158431" lon="4.659559485193097"><ele>197.0</ele><time>2026-04-03T12:17:35Z</time></trkpt><trkpt lat="43.992439955279245" lon="4.6596051298824"><ele>197.0</ele><time>2026-04-03T12:17:36Z</time></trkpt><trkpt lat="43.9925046831683" lon="4.659609593905014"><ele>197.0</ele><time>2026-04-03T12:17:37Z</time></trkpt><trkpt lat="43.992517202931296" lon="4.6597084544936225"><ele>197.0</ele><time>2026-04-03T12:17:38Z</time></trkpt><trkpt lat="43.99266102428239" lon="4.659580487837445"><ele>197.83333333333334</ele><time>2026-04-03T12:17:40Z</time></trkpt><trkpt lat="43.992716896308416" lon="4.659536121720199"><ele>198.66666666666669</ele><time>2026-04-03T12:17:41Z</time></trkpt><trkpt lat="43.99278089314086" lon="4.659482457554057"><ele>199.5</ele><time>2026-04-03T12:17:42Z</time></trkpt><trkpt lat="43.992837337972674" lon="4.659433229152662"><ele>200.33333333333331</ele><time>2026-04-03T12:17:43Z</time></trkpt><trkpt lat="43.99292505973615" lon="4.659331814774354"><ele>201.16666666666666</ele><time>2026-04-03T12:17:45Z</time></trkpt><trkpt lat="43.99295777878179" lon="4.6592456040164745"><ele>202.0</ele><time>2026-04-03T12:17:47Z</time></trkpt><trkpt lat="43.992984483399646" lon="4.65907146053467"><ele>201.99999999999997</ele><time>2026-04-03T12:17:49Z</time></trkpt><trkpt lat="43.993004170772664" lon="4.6589649207538955"><ele>202.0</ele><time>2026-04-03T12:17:50Z</time></trkpt><trkpt lat="43.99302577474359" lon="4.65885854291078"><ele>202.0</ele><time>2026-04-03T12:17:51Z</time></trkpt><trkpt lat="43.993044414491465" lon="4.658753934380945"><ele>202.0</ele><time>2026-04-03T12:17:52Z</time></trkpt><trkpt lat="43.993052535956565" lon="4.658646072930511"><ele>201.99999999999997</ele><time>2026-04-03T12:17:53Z</time></trkpt><trkpt lat="43.99305394410847" lon="4.658537281696853"><ele>202.0</ele><time>2026-04-03T12:17:54Z</time></trkpt><trkpt lat="43.99305970423634" lon="4.65843279154613"><ele>201.83333333333331</ele><time>2026-04-03T12:17:55Z</time></trkpt><trkpt lat="43.99308362215446" lon="4.658328468993394"><ele>201.66666666666666</ele><time>2026-04-03T12:17:55.999Z</time></trkpt><trkpt lat="43.99311884425353" lon="4.658231994088723"><ele>201.5</ele><time>2026-04-03T12:17:56.999Z</time></trkpt><trkpt lat="43.99315104467581" lon="4.658139704677552"><ele>201.33333333333331</ele><time>2026-04-03T12:17:57.999Z</time></trkpt><trkpt lat="43.99314151610814" lon="4.658023456328169"><ele>201.16666666666666</ele><time>2026-04-03T12:17:59.999Z</time></trkpt><trkpt lat="43.99306383576519" lon="4.657969011781651"><ele>201.0</ele><time>2026-04-03T12:18:01.999Z</time></trkpt><trkpt lat="43.992994730401854" lon="4.657928607381728"><ele>201.0</ele><time>2026-04-03T12:18:02.999Z</time></trkpt><trkpt lat="43.9929095572733" lon="4.657878384137787"><ele>201.0</ele><time>2026-04-03T12:18:03.999Z</time></trkpt><trkpt lat="43.99282763970758" lon="4.657843129440253"><ele>201.0</ele><time>2026-04-03T12:18:04.999Z</time></trkpt><trkpt lat="43.99274664223825" lon="4.6578285545021965"><ele>201.0</ele><time>2026-04-03T12:18:05.999Z</time></trkpt><trkpt lat="43.99267665596364" lon="4.657819218172521"><ele>201.0</ele><time>2026-04-03T12:18:06.999Z</time></trkpt><trkpt lat="43.99261067115815" lon="4.657810268954201"><ele>201.0</ele><time>2026-04-03T12:18:07.999Z</time></trkpt><trkpt lat="43.99250262020989" lon="4.657874615360529"><ele>199.4</ele><time>2026-04-03T12:18:09.999Z</time></trkpt><trkpt lat="43.99242012650146" lon="4.657940704537013"><ele>197.8</ele><time>2026-04-03T12:18:11.999Z</time></trkpt><trkpt lat="43.992351492391755" lon="4.65796747922153"><ele>196.20000000000002</ele><time>2026-04-03T12:18:13.999Z</time></trkpt><trkpt lat="43.99235031669058" lon="4.6581585176509535"><ele>194.60000000000002</ele><time>2026-04-03T12:18:15.999Z</time></trkpt><trkpt lat="43.99232641192755" lon="4.658257296795678"><ele>193.0</ele><time>2026-04-03T12:18:16.999Z</time></trkpt><trkpt lat="43.99231384209882" lon="4.6583674035643075"><ele>193.0</ele><time>2026-04-03T12:18:18Z</time></trkpt><trkpt lat="43.99230086857067" lon="4.658499722586518"><ele>193.0</ele><time>2026-04-03T12:18:19Z</time></trkpt><trkpt lat="43.9921980586767" lon="4.658565331636467"><ele>193.0</ele><time>2026-04-03T12:18:20Z</time></trkpt><trkpt lat="43.99213187185694" lon="4.658643936198695"><ele>193.0</ele><time>2026-04-03T12:18:21Z</time></trkpt><trkpt lat="43.99205366461916" lon="4.658716254430723"><ele>193.0</ele><time>2026-04-03T12:18:22Z</time></trkpt><trkpt lat="43.99197513033879" lon="4.658758514440208"><ele>192.66666666666666</ele><time>2026-04-03T12:18:23Z</time></trkpt><trkpt lat="43.991879813914565" lon="4.658734111042314"><ele>192.33333333333331</ele><time>2026-04-03T12:18:24Z</time></trkpt><trkpt lat="43.99179747973912" lon="4.658735345854263"><ele>192.0</ele><time>2026-04-03T12:18:25Z</time></trkpt><trkpt lat="43.991717825781194" lon="4.658734037030806"><ele>191.66666666666666</ele><time>2026-04-03T12:18:26Z</time></trkpt><trkpt lat="43.991626584546786" lon="4.658731924996643"><ele>191.33333333333331</ele><time>2026-04-03T12:18:27Z</time></trkpt><trkpt lat="43.99153974860593" lon="4.658744532004172"><ele>191.0</ele><time>2026-04-03T12:18:28Z</time></trkpt><trkpt lat="43.99146013482789" lon="4.658766357756151"><ele>190.20000000000002</ele><time>2026-04-03T12:18:29Z</time></trkpt><trkpt lat="43.9913776123571" lon="4.658800905321723"><ele>189.4</ele><time>2026-04-03T12:18:30Z</time></trkpt><trkpt lat="43.991287382329546" lon="4.658871731345723"><ele>188.6</ele><time>2026-04-03T12:18:31Z</time></trkpt><trkpt lat="43.991196002425795" lon="4.658962339998016"><ele>187.8</ele><time>2026-04-03T12:18:32Z</time></trkpt><trkpt lat="43.991111932796585" lon="4.6590615130121575"><ele>187.0</ele><time>2026-04-03T12:18:33Z</time></trkpt><trkpt lat="43.99103185732003" lon="4.659172423074532"><ele>187.0</ele><time>2026-04-03T12:18:34Z</time></trkpt><trkpt lat="43.99095557202587" lon="4.659282855148264"><ele>187.0</ele><time>2026-04-03T12:18:35Z</time></trkpt><trkpt lat="43.99088762305146" lon="4.659396772447791"><ele>187.0</ele><time>2026-04-03T12:18:36Z</time></trkpt><trkpt lat="43.990844436239776" lon="4.659531781066893"><ele>187.0</ele><time>2026-04-03T12:18:37Z</time></trkpt><trkpt lat="43.990850279072326" lon="4.659673743898584"><ele>187.0</ele><time>2026-04-03T12:18:38Z</time></trkpt><trkpt lat="43.99084931407596" lon="4.659785566109544"><ele>187.0</ele><time>2026-04-03T12:18:39Z</time></trkpt><trkpt lat="43.990861827996774" lon="4.659928527218221"><ele>187.0</ele><time>2026-04-03T12:18:40Z</time></trkpt><trkpt lat="43.990888981253015" lon="4.660068398217843"><ele>187.0</ele><time>2026-04-03T12:18:41Z</time></trkpt><trkpt lat="43.990917432317126" lon="4.660218688612964"><ele>187.0</ele><time>2026-04-03T12:18:42Z</time></trkpt><trkpt lat="43.99094989167616" lon="4.660375421410212"><ele>187.0</ele><time>2026-04-03T12:18:43Z</time></trkpt><trkpt lat="43.990988586534186" lon="4.660541277115581"><ele>187.0</ele><time>2026-04-03T12:18:44Z</time></trkpt><trkpt lat="43.9910334681414" lon="4.660706100522985"><ele>187.0</ele><time>2026-04-03T12:18:45Z</time></trkpt><trkpt lat="43.99110054167882" lon="4.660845615272442"><ele>187.0</ele><time>2026-04-03T12:18:46Z</time></trkpt><trkpt lat="43.99118140219318" lon="4.660958369541121"><ele>187.0</ele><time>2026-04-03T12:18:47Z</time></trkpt><trkpt lat="43.991299620267895" lon="4.661052807449664"><ele>187.0</ele><time>2026-04-03T12:18:48Z</time></trkpt><trkpt lat="43.99142650472972" lon="4.661151812978763"><ele>187.0</ele><time>2026-04-03T12:18:49Z</time></trkpt><trkpt lat="43.99156272163587" lon="4.6612487813476635"><ele>187.0</ele><time>2026-04-03T12:18:50Z</time></trkpt><trkpt lat="43.99169073375906" lon="4.661358877744814"><ele>187.0</ele><time>2026-04-03T12:18:51Z</time></trkpt><trkpt lat="43.991815048715885" lon="4.661477907390445"><ele>187.25</ele><time>2026-04-03T12:18:52Z</time></trkpt><trkpt lat="43.991922242672906" lon="4.661613532119593"><ele>187.5</ele><time>2026-04-03T12:18:53Z</time></trkpt><trkpt lat="43.99199729561409" lon="4.661768460379923"><ele>187.75</ele><time>2026-04-03T12:18:54Z</time></trkpt><trkpt lat="43.99208651146274" lon="4.661882145271083"><ele>188.0</ele><time>2026-04-03T12:18:55Z</time></trkpt><trkpt lat="43.99214952471289" lon="4.661992464384391"><ele>187.4</ele><time>2026-04-03T12:18:56Z</time></trkpt><trkpt lat="43.99221539992741" lon="4.66207648873737"><ele>186.8</ele><time>2026-04-03T12:18:57Z</time></trkpt><trkpt lat="43.992272560048534" lon="4.662148221344068"><ele>186.2</ele><time>2026-04-03T12:18:58Z</time></trkpt><trkpt lat="43.99234215103681" lon="4.6621478254202655"><ele>185.6</ele><time>2026-04-03T12:18:59Z</time></trkpt><trkpt lat="43.992446171730165" lon="4.662098440405827"><ele>185.0</ele><time>2026-04-03T12:19:01Z</time></trkpt><trkpt lat="43.99255101085167" lon="4.662006379570364"><ele>186.8</ele><time>2026-04-03T12:19:03Z</time></trkpt><trkpt lat="43.99266195056351" lon="4.662003054445625"><ele>188.6</ele><time>2026-04-03T12:19:05Z</time></trkpt><trkpt lat="43.992703855053634" lon="4.662130662550555"><ele>190.39999999999998</ele><time>2026-04-03T12:19:07Z</time></trkpt><trkpt lat="43.99273725424848" lon="4.662225071073747"><ele>192.2</ele><time>2026-04-03T12:19:08Z</time></trkpt><trkpt lat="43.99279388822507" lon="4.662342392066636"><ele>194.0</ele><time>2026-04-03T12:19:09Z</time></trkpt><trkpt lat="43.992871268005295" lon="4.662472071716167"><ele>194.0</ele><time>2026-04-03T12:19:10Z</time></trkpt><trkpt lat="43.99294300499834" lon="4.662633749807369"><ele>194.0</ele><time>2026-04-03T12:19:11Z</time></trkpt><trkpt lat="43.993028718172155" lon="4.6628045325125465"><ele>194.0</ele><time>2026-04-03T12:19:12Z</time></trkpt><trkpt lat="43.99312457172813" lon="4.6629678464642685"><ele>194.0</ele><time>2026-04-03T12:19:13Z</time></trkpt><trkpt lat="43.99319197821448" lon="4.663147472703024"><ele>192.25</ele><time>2026-04-03T12:19:14Z</time></trkpt><trkpt lat="43.993272364913366" lon="4.663318247864465"><ele>190.5</ele><time>2026-04-03T12:19:15Z</time></trkpt><trkpt lat="43.9933509275083" lon="4.663490242887839"><ele>188.75</ele><time>2026-04-03T12:19:16Z</time></trkpt><trkpt lat="43.99342539239746" lon="4.663658347220093"><ele>187.0</ele><time>2026-04-03T12:19:17Z</time></trkpt><trkpt lat="43.99348767220717" lon="4.663806090883894"><ele>186.25</ele><time>2026-04-03T12:19:18Z</time></trkpt><trkpt lat="43.99354705825482" lon="4.663962338898673"><ele>185.5</ele><time>2026-04-03T12:19:19Z</time></trkpt><trkpt lat="43.993599641358706" lon="4.664130056244545"><ele>184.75</ele><time>2026-04-03T12:19:20Z</time></trkpt><trkpt lat="43.99364298481994" lon="4.664304275324324"><ele>184.0</ele><time>2026-04-03T12:19:21Z</time></trkpt><trkpt lat="43.99367112718324" lon="4.664484421184049"><ele>183.0</ele><time>2026-04-03T12:19:22Z</time></trkpt><trkpt lat="43.99368464193798" lon="4.664678730097764"><ele>182.0</ele><time>2026-04-03T12:19:23Z</time></trkpt><trkpt lat="43.99371140357365" lon="4.664877973124431"><ele>181.0</ele><time>2026-04-03T12:19:24Z</time></trkpt><trkpt lat="43.99375291443949" lon="4.6650785681640405"><ele>180.0</ele><time>2026-04-03T12:19:25Z</time></trkpt><trkpt lat="43.99379288338029" lon="4.665276887043873"><ele>178.5</ele><time>2026-04-03T12:19:26Z</time></trkpt><trkpt lat="43.99382777919838" lon="4.665452727708657"><ele>177.0</ele><time>2026-04-03T12:19:27Z</time></trkpt><trkpt lat="43.99386098182026" lon="4.665617417041959"><ele>175.5</ele><time>2026-04-03T12:19:28Z</time></trkpt><trkpt lat="43.993894274675284" lon="4.665767396240333"><ele>174.0</ele><time>2026-04-03T12:19:29Z</time></trkpt><trkpt lat="43.993938127220254" lon="4.665905255767304"><ele>174.0</ele><time>2026-04-03T12:19:30Z</time></trkpt><trkpt lat="43.99401052035319" lon="4.666007324974999"><ele>174.0</ele><time>2026-04-03T12:19:31Z</time></trkpt><trkpt lat="43.994075896654344" lon="4.6661040506065605"><ele>174.0</ele><time>2026-04-03T12:19:32Z</time></trkpt><trkpt lat="43.99411595995857" lon="4.6662127626714565"><ele>174.0</ele><time>2026-04-03T12:19:33Z</time></trkpt><trkpt lat="43.99416167028309" lon="4.666304126919218"><ele>174.0</ele><time>2026-04-03T12:19:34Z</time></trkpt><trkpt lat="43.99419936966426" lon="4.666393207933979"><ele>174.0</ele><time>2026-04-03T12:19:35Z</time></trkpt><trkpt lat="43.99421843245722" lon="4.666479105367178"><ele>174.0</ele><time>2026-04-03T12:19:36Z</time></trkpt><trkpt lat="43.99424005497538" lon="4.666569294740617"><ele>174.0</ele><time>2026-04-03T12:19:37Z</time></trkpt><trkpt lat="43.99425961261319" lon="4.666653123740516"><ele>174.0</ele><time>2026-04-03T12:19:38Z</time></trkpt><trkpt lat="43.99428104503956" lon="4.666749649014114"><ele>174.0</ele><time>2026-04-03T12:19:39Z</time></trkpt><trkpt lat="43.99430530554556" lon="4.666870462901533"><ele>174.0</ele><time>2026-04-03T12:19:40Z</time></trkpt><trkpt lat="43.99432225880801" lon="4.666985255906144"><ele>174.0</ele><time>2026-04-03T12:19:41Z</time></trkpt><trkpt lat="43.99431892292058" lon="4.66707578151437"><ele>174.0</ele><time>2026-04-03T12:19:42Z</time></trkpt><trkpt lat="43.99427819031473" lon="4.6672204312762675"><ele>174.0</ele><time>2026-04-03T12:19:44Z</time></trkpt><trkpt lat="43.994255564952674" lon="4.667321786649219"><ele>174.0</ele><time>2026-04-03T12:19:46Z</time></trkpt><trkpt lat="43.99425134456538" lon="4.667422928080705"><ele>174.0</ele><time>2026-04-03T12:19:48Z</time></trkpt><trkpt lat="43.99422640847185" lon="4.667611622987961"><ele>174.0</ele><time>2026-04-03T12:19:50Z</time></trkpt><trkpt lat="43.99420068142398" lon="4.667740775962815"><ele>174.0</ele><time>2026-04-03T12:19:51Z</time></trkpt><trkpt lat="43.99420316953456" lon="4.66789430073628"><ele>172.6</ele><time>2026-04-03T12:19:52Z</time></trkpt><trkpt lat="43.99418440951324" lon="4.6680416861460285"><ele>171.2</ele><time>2026-04-03T12:19:53Z</time></trkpt><trkpt lat="43.994172938661656" lon="4.668186573363572"><ele>169.79999999999998</ele><time>2026-04-03T12:19:54Z</time></trkpt><trkpt lat="43.99415415825335" lon="4.668340547998857"><ele>168.39999999999998</ele><time>2026-04-03T12:19:55Z</time></trkpt><trkpt lat="43.99414267705274" lon="4.668486256536944"><ele>167.0</ele><time>2026-04-03T12:19:56Z</time></trkpt><trkpt lat="43.994139856487756" lon="4.668630900695491"><ele>166.6</ele><time>2026-04-03T12:19:57Z</time></trkpt><trkpt lat="43.99412818179573" lon="4.668772823072434"><ele>166.2</ele><time>2026-04-03T12:19:58Z</time></trkpt><trkpt lat="43.99410082701208" lon="4.6689100342107634"><ele>165.8</ele><time>2026-04-03T12:19:59Z</time></trkpt><trkpt lat="43.99409860325596" lon="4.669050540708414"><ele>165.4</ele><time>2026-04-03T12:20:00Z</time></trkpt><trkpt lat="43.99406507276989" lon="4.669167875953653"><ele>165.0</ele><time>2026-04-03T12:20:01Z</time></trkpt><trkpt lat="43.99406216171448" lon="4.669282428071532"><ele>165.0</ele><time>2026-04-03T12:20:02Z</time></trkpt><trkpt lat="43.99403918869202" lon="4.669389026004756"><ele>165.0</ele><time>2026-04-03T12:20:03Z</time></trkpt><trkpt lat="43.99402209652448" lon="4.6694853374419445"><ele>165.0</ele><time>2026-04-03T12:20:04Z</time></trkpt><trkpt lat="43.99400629318337" lon="4.669610023580547"><ele>165.0</ele><time>2026-04-03T12:20:05Z</time></trkpt><trkpt lat="43.993997286927936" lon="4.669746315962523"><ele>165.0</ele><time>2026-04-03T12:20:06Z</time></trkpt><trkpt lat="43.99399396617756" lon="4.669900060789519"><ele>165.0</ele><time>2026-04-03T12:20:07Z</time></trkpt><trkpt lat="43.993991090290315" lon="4.670063261147558"><ele>165.0</ele><time>2026-04-03T12:20:08Z</time></trkpt><trkpt lat="43.99399232046582" lon="4.670246351968173"><ele>165.0</ele><time>2026-04-03T12:20:09Z</time></trkpt><trkpt lat="43.993993717911735" lon="4.670448894656092"><ele>165.0</ele><time>2026-04-03T12:20:10Z</time></trkpt><trkpt lat="43.99399510823345" lon="4.670647725424923"><ele>165.0</ele><time>2026-04-03T12:20:11Z</time></trkpt><trkpt lat="43.99400366454444" lon="4.670830455189784"><ele>165.0</ele><time>2026-04-03T12:20:12Z</time></trkpt><trkpt lat="43.994013152929064" lon="4.670995396351704"><ele>165.0</ele><time>2026-04-03T12:20:13Z</time></trkpt><trkpt lat="43.99402923269086" lon="4.671179756625326"><ele>165.0</ele><time>2026-04-03T12:20:14Z</time></trkpt><trkpt lat="43.99403440474956" lon="4.671359458503094"><ele>164.25</ele><time>2026-04-03T12:20:15Z</time></trkpt><trkpt lat="43.99403487441381" lon="4.671539262120996"><ele>163.5</ele><time>2026-04-03T12:20:16Z</time></trkpt><trkpt lat="43.994056050163756" lon="4.671741078074588"><ele>162.75</ele><time>2026-04-03T12:20:17Z</time></trkpt><trkpt lat="43.99407299236211" lon="4.671974590228135"><ele>162.0</ele><time>2026-04-03T12:20:18Z</time></trkpt><trkpt lat="43.99408289333427" lon="4.672195043564867"><ele>161.75</ele><time>2026-04-03T12:20:19Z</time></trkpt><trkpt lat="43.99410973292889" lon="4.672404132864276"><ele>161.5</ele><time>2026-04-03T12:20:20Z</time></trkpt><trkpt lat="43.99412031719811" lon="4.672594284455"><ele>161.25</ele><time>2026-04-03T12:20:21Z</time></trkpt><trkpt lat="43.99416086866966" lon="4.672759238144155"><ele>161.0</ele><time>2026-04-03T12:20:21.999Z</time></trkpt><trkpt lat="43.994157334308056" lon="4.672910426574034"><ele>161.0</ele><time>2026-04-03T12:20:22.999Z</time></trkpt><trkpt lat="43.99414370210491" lon="4.67305239665713"><ele>161.0</ele><time>2026-04-03T12:20:24Z</time></trkpt><trkpt lat="43.9941164451598" lon="4.673176491327011"><ele>161.0</ele><time>2026-04-03T12:20:25Z</time></trkpt><trkpt lat="43.994070873706725" lon="4.673282847883517"><ele>161.0</ele><time>2026-04-03T12:20:26Z</time></trkpt><trkpt lat="43.994000189087174" lon="4.673389865812321"><ele>161.0</ele><time>2026-04-03T12:20:27Z</time></trkpt><trkpt lat="43.99390983221394" lon="4.673479009960782"><ele>161.0</ele><time>2026-04-03T12:20:28Z</time></trkpt><trkpt lat="43.99378854637376" lon="4.673593852242703"><ele>161.0</ele><time>2026-04-03T12:20:29Z</time></trkpt><trkpt lat="43.99364081959402" lon="4.673734527208316"><ele>161.0</ele><time>2026-04-03T12:20:30Z</time></trkpt><trkpt lat="43.993475957406694" lon="4.673875317808633"><ele>160.33333333333331</ele><time>2026-04-03T12:20:31Z</time></trkpt><trkpt lat="43.9933280141109" lon="4.673995634381506"><ele>159.66666666666666</ele><time>2026-04-03T12:20:32Z</time></trkpt><trkpt lat="43.99319685509799" lon="4.6741068619518735"><ele>159.0</ele><time>2026-04-03T12:20:33Z</time></trkpt><trkpt lat="43.99306238083398" lon="4.674233715614364"><ele>159.0</ele><time>2026-04-03T12:20:34Z</time></trkpt><trkpt lat="43.99295025612694" lon="4.674393645481712"><ele>159.0</ele><time>2026-04-03T12:20:35Z</time></trkpt><trkpt lat="43.992831739079755" lon="4.674499030162908"><ele>159.0</ele><time>2026-04-03T12:20:36Z</time></trkpt><trkpt lat="43.9927216536871" lon="4.674623219902262"><ele>159.0</ele><time>2026-04-03T12:20:37Z</time></trkpt><trkpt lat="43.99263257247763" lon="4.674764216659686"><ele>159.0</ele><time>2026-04-03T12:20:38Z</time></trkpt><trkpt lat="43.99254117422738" lon="4.6748930901106265"><ele>159.0</ele><time>2026-04-03T12:20:39Z</time></trkpt><trkpt lat="43.992430662679034" lon="4.675011844446251"><ele>159.0</ele><time>2026-04-03T12:20:40Z</time></trkpt><trkpt lat="43.992327276861644" lon="4.675112802824204"><ele>159.0</ele><time>2026-04-03T12:20:41Z</time></trkpt><trkpt lat="43.992197196995946" lon="4.67521093695453"><ele>161.75</ele><time>2026-04-03T12:20:42Z</time></trkpt><trkpt lat="43.99205969002865" lon="4.675299115260541"><ele>164.5</ele><time>2026-04-03T12:20:43Z</time></trkpt><trkpt lat="43.99194433749552" lon="4.675388677339764"><ele>167.25</ele><time>2026-04-03T12:20:44Z</time></trkpt><trkpt lat="43.99184090887719" lon="4.67548678865534"><ele>170.0</ele><time>2026-04-03T12:20:45Z</time></trkpt><trkpt lat="43.99173712613133" lon="4.675594727749292"><ele>168.5</ele><time>2026-04-03T12:20:46Z</time></trkpt><trkpt lat="43.991642678008326" lon="4.675743439843338"><ele>167.0</ele><time>2026-04-03T12:20:47Z</time></trkpt><trkpt lat="43.99154692085038" lon="4.675877687713945"><ele>165.5</ele><time>2026-04-03T12:20:48Z</time></trkpt><trkpt lat="43.99145605290643" lon="4.676020852860455"><ele>164.0</ele><time>2026-04-03T12:20:49Z</time></trkpt><trkpt lat="43.99139387002862" lon="4.676177336751123"><ele>164.0</ele><time>2026-04-03T12:20:50Z</time></trkpt><trkpt lat="43.991340464529614" lon="4.676355274750048"><ele>164.0</ele><time>2026-04-03T12:20:51Z</time></trkpt><trkpt lat="43.99129701668946" lon="4.6765045236844545"><ele>164.0</ele><time>2026-04-03T12:20:52Z</time></trkpt><trkpt lat="43.99123181646359" lon="4.676586025451798"><ele>164.0</ele><time>2026-04-03T12:20:53Z</time></trkpt><trkpt lat="43.991152604002" lon="4.676671793104632"><ele>164.0</ele><time>2026-04-03T12:20:55Z</time></trkpt><trkpt lat="43.99108185840989" lon="4.67671788223835"><ele>164.0</ele><time>2026-04-03T12:21:13Z</time></trkpt><trkpt lat="43.99099746293543" lon="4.676788604709536"><ele>164.0</ele><time>2026-04-03T12:21:14Z</time></trkpt><trkpt lat="43.99089798349409" lon="4.676873277558228"><ele>164.0</ele><time>2026-04-03T12:21:15Z</time></trkpt><trkpt lat="43.990798718371416" lon="4.677000556553294"><ele>164.0</ele><time>2026-04-03T12:21:16Z</time></trkpt><trkpt lat="43.99069635105174" lon="4.677095317379821"><ele>162.6</ele><time>2026-04-03T12:21:17Z</time></trkpt><trkpt lat="43.990592480235314" lon="4.677128819673901"><ele>161.2</ele><time>2026-04-03T12:21:18Z</time></trkpt><trkpt lat="43.990499397634935" lon="4.677152409337487"><ele>159.79999999999998</ele><time>2026-04-03T12:21:19Z</time></trkpt><trkpt lat="43.99043102769819" lon="4.677116441474899"><ele>158.39999999999998</ele><time>2026-04-03T12:21:20Z</time></trkpt><trkpt lat="43.99034403893966" lon="4.677098395892033"><ele>157.0</ele><time>2026-04-03T12:21:21Z</time></trkpt><trkpt lat="43.99021604989155" lon="4.677064021376194"><ele>157.0</ele><time>2026-04-03T12:21:22Z</time></trkpt><trkpt lat="43.990066591954445" lon="4.6770301581588125"><ele>157.0</ele><time>2026-04-03T12:21:23Z</time></trkpt><trkpt lat="43.989929509596976" lon="4.676960292456396"><ele>157.0</ele><time>2026-04-03T12:21:24Z</time></trkpt><trkpt lat="43.989789413935824" lon="4.676879514803088"><ele>157.0</ele><time>2026-04-03T12:21:25Z</time></trkpt><trkpt lat="43.989635149401515" lon="4.676829839677203"><ele>156.25</ele><time>2026-04-03T12:21:26Z</time></trkpt><trkpt lat="43.98948480168687" lon="4.6767688926280195"><ele>155.5</ele><time>2026-04-03T12:21:27Z</time></trkpt><trkpt lat="43.989342884884984" lon="4.676724019071323"><ele>154.75</ele><time>2026-04-03T12:21:28Z</time></trkpt><trkpt lat="43.989213848567054" lon="4.676657077816464"><ele>154.0</ele><time>2026-04-03T12:21:29Z</time></trkpt><trkpt lat="43.9891014228698" lon="4.6766170854862095"><ele>153.0</ele><time>2026-04-03T12:21:30Z</time></trkpt><trkpt lat="43.98898798754569" lon="4.676587245673896"><ele>152.0</ele><time>2026-04-03T12:21:31Z</time></trkpt><trkpt lat="43.98885875246044" lon="4.676640235466172"><ele>151.0</ele><time>2026-04-03T12:21:32Z</time></trkpt><trkpt lat="43.98872584788252" lon="4.676679640969242"><ele>150.0</ele><time>2026-04-03T12:21:33Z</time></trkpt><trkpt lat="43.98857682483687" lon="4.676746857445288"><ele>150.0</ele><time>2026-04-03T12:21:34Z</time></trkpt><trkpt lat="43.988441239500496" lon="4.6768209974794255"><ele>150.0</ele><time>2026-04-03T12:21:35Z</time></trkpt><trkpt lat="43.98831296733592" lon="4.676846106381574"><ele>150.0</ele><time>2026-04-03T12:21:36Z</time></trkpt><trkpt lat="43.98819799354414" lon="4.676865061872406"><ele>150.0</ele><time>2026-04-03T12:21:37Z</time></trkpt><trkpt lat="43.988074994225116" lon="4.676867575372736"><ele>149.75</ele><time>2026-04-03T12:21:38Z</time></trkpt><trkpt lat="43.987952359278204" lon="4.676844362845114"><ele>149.5</ele><time>2026-04-03T12:21:39Z</time></trkpt><trkpt lat="43.98781336557751" lon="4.676778503037183"><ele>149.25</ele><time>2026-04-03T12:21:40Z</time></trkpt><trkpt lat="43.98766711739382" lon="4.676707911975363"><ele>149.0</ele><time>2026-04-03T12:21:41Z</time></trkpt><trkpt lat="43.98754094874505" lon="4.676663377786441"><ele>148.5</ele><time>2026-04-03T12:21:42Z</time></trkpt><trkpt lat="43.98745812870509" lon="4.676540543748286"><ele>148.0</ele><time>2026-04-03T12:21:43Z</time></trkpt><trkpt lat="43.987394514065" lon="4.676425371225243"><ele>147.5</ele><time>2026-04-03T12:21:44Z</time></trkpt><trkpt lat="43.987330557291976" lon="4.676288054547438"><ele>147.0</ele><time>2026-04-03T12:21:45Z</time></trkpt><trkpt lat="43.987249640018824" lon="4.676105804460825"><ele>147.5</ele><time>2026-04-03T12:21:46Z</time></trkpt><trkpt lat="43.98715993821953" lon="4.675920100350545"><ele>148.0</ele><time>2026-04-03T12:21:47Z</time></trkpt><trkpt lat="43.98709039301252" lon="4.67576182521487"><ele>148.5</ele><time>2026-04-03T12:21:48Z</time></trkpt><trkpt lat="43.9870177478403" lon="4.675652396008281"><ele>149.0</ele><time>2026-04-03T12:21:49Z</time></trkpt><trkpt lat="43.98693495231525" lon="4.675535531421456"><ele>149.0</ele><time>2026-04-03T12:21:50Z</time></trkpt><trkpt lat="43.98677863415676" lon="4.675462984641656"><ele>149.0</ele><time>2026-04-03T12:21:51Z</time></trkpt><trkpt lat="43.98661918421291" lon="4.675359949471248"><ele>149.0</ele><time>2026-04-03T12:21:52Z</time></trkpt><trkpt lat="43.98649103744463" lon="4.67521527661548"><ele>149.5</ele><time>2026-04-03T12:21:53Z</time></trkpt><trkpt lat="43.98636862693917" lon="4.675124487422696"><ele>150.0</ele><time>2026-04-03T12:21:54Z</time></trkpt><trkpt lat="43.98623359070742" lon="4.6750348047703225"><ele>150.5</ele><time>2026-04-03T12:21:55Z</time></trkpt><trkpt lat="43.98609933934229" lon="4.675007317711258"><ele>151.0</ele><time>2026-04-03T12:21:56Z</time></trkpt><trkpt lat="43.985960500526254" lon="4.6749744549287575"><ele>150.5</ele><time>2026-04-03T12:21:57Z</time></trkpt><trkpt lat="43.98582116377799" lon="4.674926087723347"><ele>150.0</ele><time>2026-04-03T12:21:58Z</time></trkpt><trkpt lat="43.98569200930875" lon="4.674798379889216"><ele>149.5</ele><time>2026-04-03T12:21:59Z</time></trkpt><trkpt lat="43.985564917590686" lon="4.6747200987858"><ele>149.0</ele><time>2026-04-03T12:22:00Z</time></trkpt><trkpt lat="43.9854210251582" lon="4.67467385823343"><ele>149.0</ele><time>2026-04-03T12:22:01Z</time></trkpt><trkpt lat="43.98526398524274" lon="4.674665818918428"><ele>149.0</ele><time>2026-04-03T12:22:02Z</time></trkpt><trkpt lat="43.985127923967774" lon="4.674635025747656"><ele>149.0</ele><time>2026-04-03T12:22:03Z</time></trkpt><trkpt lat="43.98502915029571" lon="4.674565224603914"><ele>149.0</ele><time>2026-04-03T12:22:04Z</time></trkpt><trkpt lat="43.98494849244843" lon="4.6744929425659505"><ele>149.0</ele><time>2026-04-03T12:22:05Z</time></trkpt><trkpt lat="43.98487493646083" lon="4.674407089447919"><ele>149.0</ele><time>2026-04-03T12:22:06Z</time></trkpt><trkpt lat="43.98480793157586" lon="4.6743074284068475"><ele>149.0</ele><time>2026-04-03T12:22:07Z</time></trkpt><trkpt lat="43.984746877759456" lon="4.674193937399836"><ele>149.0</ele><time>2026-04-03T12:22:08Z</time></trkpt><trkpt lat="43.98467979749875" lon="4.6740481326425884"><ele>149.0</ele><time>2026-04-03T12:22:09Z</time></trkpt><trkpt lat="43.98461246984877" lon="4.673882422183171"><ele>149.0</ele><time>2026-04-03T12:22:10Z</time></trkpt><trkpt lat="43.98454218930858" lon="4.673700307704311"><ele>149.0</ele><time>2026-04-03T12:22:11Z</time></trkpt><trkpt lat="43.984453996547465" lon="4.673522122332092"><ele>149.0</ele><time>2026-04-03T12:22:12Z</time></trkpt><trkpt lat="43.98438207171685" lon="4.673319524136138"><ele>149.0</ele><time>2026-04-03T12:22:13Z</time></trkpt><trkpt lat="43.984304363692985" lon="4.673119912252099"><ele>149.0</ele><time>2026-04-03T12:22:14Z</time></trkpt><trkpt lat="43.98421232873319" lon="4.672930575139218"><ele>149.0</ele><time>2026-04-03T12:22:15Z</time></trkpt><trkpt lat="43.98413137520647" lon="4.6727555087483115"><ele>149.0</ele><time>2026-04-03T12:22:16Z</time></trkpt><trkpt lat="43.984055925383046" lon="4.67256340378406"><ele>149.0</ele><time>2026-04-03T12:22:17Z</time></trkpt><trkpt lat="43.98398931663431" lon="4.672383829109709"><ele>149.0</ele><time>2026-04-03T12:22:18Z</time></trkpt><trkpt lat="43.98391315669393" lon="4.672222323629157"><ele>149.0</ele><time>2026-04-03T12:22:19Z</time></trkpt><trkpt lat="43.983848863375705" lon="4.672051368339711"><ele>149.0</ele><time>2026-04-03T12:22:20Z</time></trkpt><trkpt lat="43.98378028842705" lon="4.671912276747632"><ele>149.0</ele><time>2026-04-03T12:22:21Z</time></trkpt><trkpt lat="43.98375348157909" lon="4.6717819470605955"><ele>149.0</ele><time>2026-04-03T12:22:22Z</time></trkpt><trkpt lat="43.98373201424046" lon="4.671676866263148"><ele>149.0</ele><time>2026-04-03T12:22:23Z</time></trkpt><trkpt lat="43.983653830908665" lon="4.671605651846294"><ele>149.0</ele><time>2026-04-03T12:22:25Z</time></trkpt><trkpt lat="43.983499102551725" lon="4.671667032270788"><ele>149.0</ele><time>2026-04-03T12:22:27Z</time></trkpt><trkpt lat="43.98341702365202" lon="4.671744169140163"><ele>149.0</ele><time>2026-04-03T12:22:28Z</time></trkpt><trkpt lat="43.98333931902685" lon="4.671791997914417"><ele>149.0</ele><time>2026-04-03T12:22:29Z</time></trkpt><trkpt lat="43.983281654451794" lon="4.671835854951582"><ele>149.0</ele><time>2026-04-03T12:22:30Z</time></trkpt><trkpt lat="43.983226714285635" lon="4.67190111188848"><ele>149.0</ele><time>2026-04-03T12:23:00Z</time></trkpt><trkpt lat="43.983279934479114" lon="4.671837386317291"><ele>149.0</ele><time>2026-04-03T12:23:22Z</time></trkpt><trkpt lat="43.98318233121539" lon="4.6719116864373875"><ele>148.25</ele><time>2026-04-03T12:23:56Z</time></trkpt><trkpt lat="43.98309544857396" lon="4.671977067111848"><ele>147.5</ele><time>2026-04-03T12:23:57Z</time></trkpt><trkpt lat="43.98300317165743" lon="4.672061980206907"><ele>146.75</ele><time>2026-04-03T12:23:58Z</time></trkpt><trkpt lat="43.982875854431086" lon="4.672149521226559"><ele>146.0</ele><time>2026-04-03T12:23:59Z</time></trkpt><trkpt lat="43.98276198099347" lon="4.672265787213667"><ele>146.0</ele><time>2026-04-03T12:24:00Z</time></trkpt><trkpt lat="43.98265750919568" lon="4.672390881069146"><ele>146.0</ele><time>2026-04-03T12:24:01Z</time></trkpt><trkpt lat="43.982550154046294" lon="4.672479341999058"><ele>146.0</ele><time>2026-04-03T12:24:02Z</time></trkpt><trkpt lat="43.98246126938273" lon="4.67259361977633"><ele>146.0</ele><time>2026-04-03T12:24:03Z</time></trkpt><trkpt lat="43.98236516666635" lon="4.672681880161744"><ele>145.25</ele><time>2026-04-03T12:24:04Z</time></trkpt><trkpt lat="43.98226040755046" lon="4.6727648419835415"><ele>144.5</ele><time>2026-04-03T12:24:05Z</time></trkpt><trkpt lat="43.98214754697917" lon="4.672830280869001"><ele>143.75</ele><time>2026-04-03T12:24:06Z</time></trkpt><trkpt lat="43.98203823904858" lon="4.672924792650476"><ele>143.0</ele><time>2026-04-03T12:24:07Z</time></trkpt><trkpt lat="43.98190424181268" lon="4.672984672763403"><ele>143.0</ele><time>2026-04-03T12:24:08Z</time></trkpt><trkpt lat="43.98176604217565" lon="4.673059831182705"><ele>143.0</ele><time>2026-04-03T12:24:09Z</time></trkpt><trkpt lat="43.981633742816086" lon="4.673156461508851"><ele>143.0</ele><time>2026-04-03T12:24:10Z</time></trkpt><trkpt lat="43.98151296488211" lon="4.673224524970283"><ele>143.0</ele><time>2026-04-03T12:24:11Z</time></trkpt><trkpt lat="43.98138187695435" lon="4.6733114886615486"><ele>142.33333333333331</ele><time>2026-04-03T12:24:12Z</time></trkpt><trkpt lat="43.981276286223704" lon="4.6734658246035385"><ele>141.66666666666666</ele><time>2026-04-03T12:24:13Z</time></trkpt><trkpt lat="43.981156973633496" lon="4.6736084479551145"><ele>141.0</ele><time>2026-04-03T12:24:14Z</time></trkpt><trkpt lat="43.981040376754976" lon="4.673738963737105"><ele>140.83333333333334</ele><time>2026-04-03T12:24:15Z</time></trkpt><trkpt lat="43.98094980876116" lon="4.673823253333837"><ele>140.66666666666666</ele><time>2026-04-03T12:24:16Z</time></trkpt><trkpt lat="43.98086421023311" lon="4.673862166429423"><ele>140.5</ele><time>2026-04-03T12:24:17Z</time></trkpt><trkpt lat="43.9807991514343" lon="4.673892772525613"><ele>140.33333333333331</ele><time>2026-04-03T12:24:18Z</time></trkpt><trkpt lat="43.98073489628602" lon="4.673885344923326"><ele>140.16666666666666</ele><time>2026-04-03T12:24:20Z</time></trkpt><trkpt lat="43.98068654309262" lon="4.6737949783672255"><ele>140.0</ele><time>2026-04-03T12:24:25Z</time></trkpt><trkpt lat="43.9806279346911" lon="4.6737535997213016"><ele>140.0</ele><time>2026-04-03T12:24:27Z</time></trkpt><trkpt lat="43.98056849119039" lon="4.673711631514272"><ele>140.0</ele><time>2026-04-03T12:24:28Z</time></trkpt><trkpt lat="43.98050729690033" lon="4.673670551115117"><ele>140.0</ele><time>2026-04-03T12:24:29Z</time></trkpt><trkpt lat="43.980402662541515" lon="4.6736250000318025"><ele>140.0</ele><time>2026-04-03T12:24:30Z</time></trkpt><trkpt lat="43.98030346680882" lon="4.673538715281487"><ele>140.0</ele><time>2026-04-03T12:24:31Z</time></trkpt><trkpt lat="43.98016919625673" lon="4.673451321359499"><ele>140.0</ele><time>2026-04-03T12:24:32Z</time></trkpt><trkpt lat="43.98003700800212" lon="4.673365387112527"><ele>140.0</ele><time>2026-04-03T12:24:32.999Z</time></trkpt><trkpt lat="43.97990881862959" lon="4.673308728745643"><ele>140.0</ele><time>2026-04-03T12:24:33.999Z</time></trkpt><trkpt lat="43.97980126567662" lon="4.673237193216955"><ele>140.0</ele><time>2026-04-03T12:24:34.999Z</time></trkpt><trkpt lat="43.9797056017854" lon="4.6731450847330365"><ele>140.0</ele><time>2026-04-03T12:24:36Z</time></trkpt><trkpt lat="43.97961890181544" lon="4.673085087461797"><ele>140.0</ele><time>2026-04-03T12:24:37Z</time></trkpt><trkpt lat="43.97955269893812" lon="4.672955123299236"><ele>140.0</ele><time>2026-04-03T12:24:38Z</time></trkpt><trkpt lat="43.97947787156903" lon="4.672808402647757"><ele>140.0</ele><time>2026-04-03T12:24:39Z</time></trkpt><trkpt lat="43.979398472700964" lon="4.67263698180793"><ele>140.33333333333331</ele><time>2026-04-03T12:24:40Z</time></trkpt><trkpt lat="43.97931701159117" lon="4.672453819597388"><ele>140.66666666666666</ele><time>2026-04-03T12:24:41Z</time></trkpt><trkpt lat="43.97922933354918" lon="4.672251405688829"><ele>141.0</ele><time>2026-04-03T12:24:42Z</time></trkpt><trkpt lat="43.97913580714557" lon="4.672036576839353"><ele>140.33333333333334</ele><time>2026-04-03T12:24:43Z</time></trkpt><trkpt lat="43.97904020144974" lon="4.671817865389982"><ele>139.66666666666669</ele><time>2026-04-03T12:24:44Z</time></trkpt><trkpt lat="43.97894503588718" lon="4.671603488004363"><ele>139.0</ele><time>2026-04-03T12:24:45Z</time></trkpt><trkpt lat="43.97885397055787" lon="4.6714004553595"><ele>139.0</ele><time>2026-04-03T12:24:46Z</time></trkpt><trkpt lat="43.97876261505646" lon="4.671199232601891"><ele>139.0</ele><time>2026-04-03T12:24:47Z</time></trkpt><trkpt lat="43.978674706649635" lon="4.67100716892238"><ele>139.0</ele><time>2026-04-03T12:24:48Z</time></trkpt><trkpt lat="43.97858677299619" lon="4.670838855906865"><ele>139.33333333333334</ele><time>2026-04-03T12:24:49Z</time></trkpt><trkpt lat="43.97847660184896" lon="4.67066977833395"><ele>139.66666666666666</ele><time>2026-04-03T12:24:50Z</time></trkpt><trkpt lat="43.978358635931" lon="4.670494651444212"><ele>140.0</ele><time>2026-04-03T12:24:51Z</time></trkpt><trkpt lat="43.97824762514047" lon="4.670323638837051"><ele>140.66666666666666</ele><time>2026-04-03T12:24:52Z</time></trkpt><trkpt lat="43.978130179807685" lon="4.670164976270754"><ele>141.33333333333334</ele><time>2026-04-03T12:24:53Z</time></trkpt><trkpt lat="43.97802979718339" lon="4.669980325463075"><ele>142.0</ele><time>2026-04-03T12:24:54Z</time></trkpt><trkpt lat="43.97795171749214" lon="4.669804837546875"><ele>142.0</ele><time>2026-04-03T12:24:55Z</time></trkpt><trkpt lat="43.97789316419363" lon="4.669595990937221"><ele>142.0</ele><time>2026-04-03T12:24:56Z</time></trkpt><trkpt lat="43.97781049535811" lon="4.6693494489372345"><ele>142.0</ele><time>2026-04-03T12:24:57Z</time></trkpt><trkpt lat="43.977722651613256" lon="4.669101164771434"><ele>142.0</ele><time>2026-04-03T12:24:58Z</time></trkpt><trkpt lat="43.977632003403734" lon="4.668854817382454"><ele>142.0</ele><time>2026-04-03T12:24:59Z</time></trkpt><trkpt lat="43.97754602631946" lon="4.668623458342445"><ele>142.0</ele><time>2026-04-03T12:25:00Z</time></trkpt><trkpt lat="43.977454031883475" lon="4.668381832369521"><ele>142.0</ele><time>2026-04-03T12:25:01Z</time></trkpt><trkpt lat="43.97736973936164" lon="4.668159896535881"><ele>142.0</ele><time>2026-04-03T12:25:02Z</time></trkpt><trkpt lat="43.97728146569603" lon="4.6679168384640635"><ele>142.0</ele><time>2026-04-03T12:25:03Z</time></trkpt><trkpt lat="43.977202591503634" lon="4.66768457274889"><ele>142.66666666666669</ele><time>2026-04-03T12:25:04Z</time></trkpt><trkpt lat="43.97712221312366" lon="4.667448299733201"><ele>143.33333333333334</ele><time>2026-04-03T12:25:05Z</time></trkpt><trkpt lat="43.97704631729241" lon="4.667227521920612"><ele>144.0</ele><time>2026-04-03T12:25:06Z</time></trkpt><trkpt lat="43.976973451728924" lon="4.667017900943815"><ele>144.4</ele><time>2026-04-03T12:25:07Z</time></trkpt><trkpt lat="43.97691080624192" lon="4.666841792506207"><ele>144.8</ele><time>2026-04-03T12:25:08Z</time></trkpt><trkpt lat="43.97685352112886" lon="4.666703318053454"><ele>145.2</ele><time>2026-04-03T12:25:09Z</time></trkpt><trkpt lat="43.976817805153225" lon="4.666592340836167"><ele>145.6</ele><time>2026-04-03T12:25:10Z</time></trkpt><trkpt lat="43.97678403784325" lon="4.666503282269132"><ele>146.0</ele><time>2026-04-03T12:25:11Z</time></trkpt><trkpt lat="43.976735406401424" lon="4.666380380822389"><ele>146.2</ele><time>2026-04-03T12:25:13Z</time></trkpt><trkpt lat="43.976645457354806" lon="4.666469845712502"><ele>146.39999999999998</ele><time>2026-04-03T12:25:15Z</time></trkpt><trkpt lat="43.976517333570555" lon="4.666477490777913"><ele>146.6</ele><time>2026-04-03T12:25:17Z</time></trkpt><trkpt lat="43.976431220650994" lon="4.666500044779183"><ele>146.79999999999998</ele><time>2026-04-03T12:25:18Z</time></trkpt><trkpt lat="43.97631626902517" lon="4.666534666451827"><ele>147.0</ele><time>2026-04-03T12:25:19Z</time></trkpt><trkpt lat="43.97619495698998" lon="4.666583257254652"><ele>147.0</ele><time>2026-04-03T12:25:20Z</time></trkpt><trkpt lat="43.976093994463994" lon="4.666694393597185"><ele>147.0</ele><time>2026-04-03T12:25:21Z</time></trkpt><trkpt lat="43.97598239659703" lon="4.666783185963529"><ele>147.0</ele><time>2026-04-03T12:25:22Z</time></trkpt><trkpt lat="43.97587125303236" lon="4.666904448740808"><ele>147.0</ele><time>2026-04-03T12:25:23Z</time></trkpt><trkpt lat="43.975742946208825" lon="4.667002165657756"><ele>146.5</ele><time>2026-04-03T12:25:24Z</time></trkpt><trkpt lat="43.97562871306063" lon="4.667113102176465"><ele>146.0</ele><time>2026-04-03T12:25:25Z</time></trkpt><trkpt lat="43.975532208299164" lon="4.667204836308431"><ele>145.5</ele><time>2026-04-03T12:25:26Z</time></trkpt><trkpt lat="43.97544223846961" lon="4.667306497876391"><ele>145.0</ele><time>2026-04-03T12:25:27Z</time></trkpt><trkpt lat="43.97532634946498" lon="4.667319722996328"><ele>145.0</ele><time>2026-04-03T12:25:28Z</time></trkpt><trkpt lat="43.97520642080424" lon="4.667277383857715"><ele>145.0</ele><time>2026-04-03T12:25:29Z</time></trkpt><trkpt lat="43.97509550729578" lon="4.667247411321299"><ele>145.0</ele><time>2026-04-03T12:25:30Z</time></trkpt><trkpt lat="43.97495097587041" lon="4.667205657782222"><ele>145.0</ele><time>2026-04-03T12:25:31Z</time></trkpt><trkpt lat="43.97480285915277" lon="4.6671618711026"><ele>144.75</ele><time>2026-04-03T12:25:32Z</time></trkpt><trkpt lat="43.97464601610197" lon="4.667113236623127"><ele>144.5</ele><time>2026-04-03T12:25:33Z</time></trkpt><trkpt lat="43.974520951958716" lon="4.667098236007071"><ele>144.25</ele><time>2026-04-03T12:25:34Z</time></trkpt><trkpt lat="43.97442630496903" lon="4.667076638260776"><ele>144.0</ele><time>2026-04-03T12:25:35Z</time></trkpt><trkpt lat="43.97434838791395" lon="4.667077597960722"><ele>144.0</ele><time>2026-04-03T12:25:36Z</time></trkpt><trkpt lat="43.974282794999915" lon="4.667059243342414"><ele>144.0</ele><time>2026-04-03T12:25:37Z</time></trkpt><trkpt lat="43.97418102068706" lon="4.667144904660356"><ele>144.0</ele><time>2026-04-03T12:25:39Z</time></trkpt><trkpt lat="43.974111928482195" lon="4.667230636940528"><ele>144.0</ele><time>2026-04-03T12:25:40Z</time></trkpt><trkpt lat="43.97410184191411" lon="4.667503914664872"><ele>144.33333333333334</ele><time>2026-04-03T12:25:41Z</time></trkpt><trkpt lat="43.97400683375069" lon="4.667719059915425"><ele>144.66666666666669</ele><time>2026-04-03T12:25:42Z</time></trkpt><trkpt lat="43.97389461559797" lon="4.667982565003411"><ele>145.0</ele><time>2026-04-03T12:25:43Z</time></trkpt><trkpt lat="43.973784954303966" lon="4.6682741973260145"><ele>144.0</ele><time>2026-04-03T12:25:44Z</time></trkpt><trkpt lat="43.97365054532779" lon="4.668571611912938"><ele>143.0</ele><time>2026-04-03T12:25:45Z</time></trkpt><trkpt lat="43.97353140207928" lon="4.668888247962425"><ele>141.0</ele><time>2026-04-03T12:25:46Z</time></trkpt><trkpt lat="43.97341499398027" lon="4.669208506354443"><ele>139.0</ele><time>2026-04-03T12:25:47Z</time></trkpt><trkpt lat="43.973323130807245" lon="4.669519157866096"><ele>139.0</ele><time>2026-04-03T12:25:48Z</time></trkpt><trkpt lat="43.97321402801732" lon="4.669793064678223"><ele>139.0</ele><time>2026-04-03T12:25:49Z</time></trkpt><trkpt lat="43.97312401546832" lon="4.670061424190253"><ele>139.0</ele><time>2026-04-03T12:25:50Z</time></trkpt><trkpt lat="43.973029867096216" lon="4.670348947967761"><ele>139.66666666666669</ele><time>2026-04-03T12:25:51Z</time></trkpt><trkpt lat="43.972943644354764" lon="4.67061993628454"><ele>140.33333333333334</ele><time>2026-04-03T12:25:52Z</time></trkpt><trkpt lat="43.97288941614097" lon="4.670867591971616"><ele>141.0</ele><time>2026-04-03T12:25:53Z</time></trkpt><trkpt lat="43.97283587995943" lon="4.671142542704016"><ele>141.66666666666666</ele><time>2026-04-03T12:25:54Z</time></trkpt><trkpt lat="43.97277617191921" lon="4.67145045211092"><ele>142.33333333333331</ele><time>2026-04-03T12:25:55Z</time></trkpt><trkpt lat="43.97274682436466" lon="4.67174168586934"><ele>143.0</ele><time>2026-04-03T12:25:56Z</time></trkpt><trkpt lat="43.97270224072757" lon="4.671977134384136"><ele>144.0</ele><time>2026-04-03T12:25:57Z</time></trkpt><trkpt lat="43.9726572587214" lon="4.672200656885726"><ele>145.0</ele><time>2026-04-03T12:25:58Z</time></trkpt><trkpt lat="43.972564166650656" lon="4.672419114703591"><ele>146.0</ele><time>2026-04-03T12:25:59Z</time></trkpt><trkpt lat="43.97245946596483" lon="4.672672176097276"><ele>148.66666666666666</ele><time>2026-04-03T12:26:00Z</time></trkpt><trkpt lat="43.97237862533876" lon="4.672910576063986"><ele>151.33333333333334</ele><time>2026-04-03T12:26:01Z</time></trkpt><trkpt lat="43.97230697587913" lon="4.673100410909091"><ele>154.0</ele><time>2026-04-03T12:26:02Z</time></trkpt><trkpt lat="43.972266516759696" lon="4.673280466597814"><ele>154.0</ele><time>2026-04-03T12:26:03Z</time></trkpt><trkpt lat="43.97226787337258" lon="4.6734593912756335"><ele>154.0</ele><time>2026-04-03T12:26:04Z</time></trkpt><trkpt lat="43.97225699982357" lon="4.673691546799902"><ele>154.0</ele><time>2026-04-03T12:26:05Z</time></trkpt><trkpt lat="43.972231616218004" lon="4.673986617950509"><ele>155.0</ele><time>2026-04-03T12:26:06Z</time></trkpt><trkpt lat="43.97221100864036" lon="4.674282633669641"><ele>156.0</ele><time>2026-04-03T12:26:07Z</time></trkpt><trkpt lat="43.97217126136192" lon="4.67452008356094"><ele>157.0</ele><time>2026-04-03T12:26:08Z</time></trkpt><trkpt lat="43.972148433978326" lon="4.674724999148271"><ele>158.0</ele><time>2026-04-03T12:26:09Z</time></trkpt><trkpt lat="43.97214372122641" lon="4.674917968918235"><ele>159.0</ele><time>2026-04-03T12:26:10Z</time></trkpt><trkpt lat="43.97211937435319" lon="4.675086662818353"><ele>160.0</ele><time>2026-04-03T12:26:11Z</time></trkpt><trkpt lat="43.972117108354226" lon="4.675241023904952"><ele>161.0</ele><time>2026-04-03T12:26:12Z</time></trkpt><trkpt lat="43.97214539329409" lon="4.675399921439036"><ele>161.33333333333331</ele><time>2026-04-03T12:26:13Z</time></trkpt><trkpt lat="43.97219070293519" lon="4.675623147725349"><ele>161.66666666666666</ele><time>2026-04-03T12:26:14Z</time></trkpt><trkpt lat="43.97226359930772" lon="4.675831958609771"><ele>162.0</ele><time>2026-04-03T12:26:15Z</time></trkpt><trkpt lat="43.97232485974509" lon="4.676068622661903"><ele>162.33333333333334</ele><time>2026-04-03T12:26:16Z</time></trkpt><trkpt lat="43.97240415214226" lon="4.676314728116721"><ele>162.66666666666669</ele><time>2026-04-03T12:26:17Z</time></trkpt><trkpt lat="43.97245061759319" lon="4.676532444105792"><ele>163.0</ele><time>2026-04-03T12:26:18Z</time></trkpt><trkpt lat="43.972506217890725" lon="4.676722202334305"><ele>162.75</ele><time>2026-04-03T12:26:19Z</time></trkpt><trkpt lat="43.972565857650444" lon="4.676884480154264"><ele>162.5</ele><time>2026-04-03T12:26:20Z</time></trkpt><trkpt lat="43.97260391524185" lon="4.6770401193607745"><ele>162.25</ele><time>2026-04-03T12:26:21Z</time></trkpt><trkpt lat="43.97262957398016" lon="4.677191343801281"><ele>162.0</ele><time>2026-04-03T12:26:22Z</time></trkpt><trkpt lat="43.972664478128955" lon="4.67732994981162"><ele>162.0</ele><time>2026-04-03T12:26:23Z</time></trkpt><trkpt lat="43.97269870586109" lon="4.677454460458026"><ele>162.0</ele><time>2026-04-03T12:26:24Z</time></trkpt><trkpt lat="43.97273165367914" lon="4.677560793596047"><ele>162.0</ele><time>2026-04-03T12:26:25Z</time></trkpt><trkpt lat="43.97279300687002" lon="4.677639833501017"><ele>162.0</ele><time>2026-04-03T12:26:25.999Z</time></trkpt><trkpt lat="43.97286812901557" lon="4.677707668349665"><ele>162.0</ele><time>2026-04-03T12:26:26.999Z</time></trkpt><trkpt lat="43.9729346445217" lon="4.677765706003801"><ele>162.0</ele><time>2026-04-03T12:26:27.999Z</time></trkpt><trkpt lat="43.97297806989592" lon="4.677858122473071"><ele>161.16666666666666</ele><time>2026-04-03T12:26:28.999Z</time></trkpt><trkpt lat="43.972978975915055" lon="4.677981665223691"><ele>160.33333333333334</ele><time>2026-04-03T12:26:29.999Z</time></trkpt><trkpt lat="43.97293311675618" lon="4.6780901000261625"><ele>159.5</ele><time>2026-04-03T12:26:30.999Z</time></trkpt><trkpt lat="43.97292851745769" lon="4.678189915870267"><ele>158.66666666666669</ele><time>2026-04-03T12:26:31.999Z</time></trkpt><trkpt lat="43.972979040978096" lon="4.678255420709264"><ele>157.83333333333334</ele><time>2026-04-03T12:26:32.999Z</time></trkpt><trkpt lat="43.97306762959035" lon="4.678258597822517"><ele>157.0</ele><time>2026-04-03T12:26:33.999Z</time></trkpt><trkpt lat="43.97316562837961" lon="4.678223560155604"><ele>157.0</ele><time>2026-04-03T12:26:34.999Z</time></trkpt><trkpt lat="43.97329211979029" lon="4.678225274970549"><ele>157.0</ele><time>2026-04-03T12:26:35.999Z</time></trkpt><trkpt lat="43.9734365635223" lon="4.678274134713019"><ele>157.0</ele><time>2026-04-03T12:26:36.999Z</time></trkpt><trkpt lat="43.97361270049595" lon="4.678370764816811"><ele>157.66666666666669</ele><time>2026-04-03T12:26:37.999Z</time></trkpt><trkpt lat="43.973824169803066" lon="4.678488171590699"><ele>158.33333333333334</ele><time>2026-04-03T12:26:38.999Z</time></trkpt><trkpt lat="43.974008988709734" lon="4.678579354126769"><ele>159.0</ele><time>2026-04-03T12:26:39.999Z</time></trkpt><trkpt lat="43.97416437791274" lon="4.678674771161663"><ele>157.33333333333334</ele><time>2026-04-03T12:26:40.999Z</time></trkpt><trkpt lat="43.974293764555185" lon="4.678772475645435"><ele>155.66666666666669</ele><time>2026-04-03T12:26:42Z</time></trkpt><trkpt lat="43.97440066468532" lon="4.6789033980763355"><ele>154.0</ele><time>2026-04-03T12:26:43Z</time></trkpt><trkpt lat="43.97455691912869" lon="4.678985166215639"><ele>154.0</ele><time>2026-04-03T12:26:44Z</time></trkpt><trkpt lat="43.97470368237506" lon="4.679122799217546"><ele>154.0</ele><time>2026-04-03T12:26:45Z</time></trkpt><trkpt lat="43.974855957746314" lon="4.679279001417607"><ele>154.0</ele><time>2026-04-03T12:26:46Z</time></trkpt><trkpt lat="43.975008818628886" lon="4.679454666147719"><ele>153.0</ele><time>2026-04-03T12:26:47Z</time></trkpt><trkpt lat="43.97514691512073" lon="4.6796289569911"><ele>152.0</ele><time>2026-04-03T12:26:48Z</time></trkpt><trkpt lat="43.97527283803958" lon="4.679794131867905"><ele>151.0</ele><time>2026-04-03T12:26:49Z</time></trkpt><trkpt lat="43.975355541775876" lon="4.679978123554212"><ele>151.0</ele><time>2026-04-03T12:26:50Z</time></trkpt><trkpt lat="43.975433683959785" lon="4.680141225056453"><ele>151.0</ele><time>2026-04-03T12:26:51Z</time></trkpt><trkpt lat="43.97550453009003" lon="4.680278339430893"><ele>151.0</ele><time>2026-04-03T12:26:52Z</time></trkpt><trkpt lat="43.97558631225366" lon="4.680365843977569"><ele>151.0</ele><time>2026-04-03T12:26:53Z</time></trkpt><trkpt lat="43.975660332652964" lon="4.680437015963046"><ele>150.85714285714286</ele><time>2026-04-03T12:26:54Z</time></trkpt><trkpt lat="43.975728326838066" lon="4.6805073065414415"><ele>150.71428571428572</ele><time>2026-04-03T12:26:55Z</time></trkpt><trkpt lat="43.97579640863453" lon="4.680562024359179"><ele>150.57142857142856</ele><time>2026-04-03T12:26:56Z</time></trkpt><trkpt lat="43.975869164260445" lon="4.680592216955671"><ele>150.42857142857144</ele><time>2026-04-03T12:26:57Z</time></trkpt><trkpt lat="43.97593227540092" lon="4.680634479668245"><ele>150.28571428571428</ele><time>2026-04-03T12:26:58Z</time></trkpt><trkpt lat="43.97599257256864" lon="4.680672991741384"><ele>150.14285714285714</ele><time>2026-04-03T12:26:59Z</time></trkpt><trkpt lat="43.97605271812116" lon="4.680712890521245"><ele>150.0</ele><time>2026-04-03T12:27:00Z</time></trkpt><trkpt lat="43.976112075347736" lon="4.680745342394627"><ele>150.0</ele><time>2026-04-03T12:27:01Z</time></trkpt><trkpt lat="43.97619558561068" lon="4.680832220332297"><ele>150.0</ele><time>2026-04-03T12:27:03Z</time></trkpt><trkpt lat="43.97626273805931" lon="4.6808854614423625"><ele>150.0</ele><time>2026-04-03T12:27:05Z</time></trkpt><trkpt lat="43.97634337877503" lon="4.680939510333684"><ele>150.0</ele><time>2026-04-03T12:27:06Z</time></trkpt><trkpt lat="43.97643055508295" lon="4.681077930494085"><ele>150.0</ele><time>2026-04-03T12:27:07Z</time></trkpt><trkpt lat="43.9765325572398" lon="4.681233743350883"><ele>149.75</ele><time>2026-04-03T12:27:08Z</time></trkpt><trkpt lat="43.97663754027842" lon="4.681419004017325"><ele>149.5</ele><time>2026-04-03T12:27:09Z</time></trkpt><trkpt lat="43.97671497729329" lon="4.681584182338395"><ele>149.25</ele><time>2026-04-03T12:27:10Z</time></trkpt><trkpt lat="43.97679020390895" lon="4.681724813176936"><ele>149.0</ele><time>2026-04-03T12:27:11Z</time></trkpt><trkpt lat="43.97686541180207" lon="4.6818287872043856"><ele>148.25</ele><time>2026-04-03T12:27:12Z</time></trkpt><trkpt lat="43.97692108919099" lon="4.6819353480625825"><ele>147.5</ele><time>2026-04-03T12:27:13Z</time></trkpt><trkpt lat="43.977004308105" lon="4.682063241370993"><ele>146.75</ele><time>2026-04-03T12:27:14Z</time></trkpt><trkpt lat="43.97712370701369" lon="4.682241494600674"><ele>146.0</ele><time>2026-04-03T12:27:15Z</time></trkpt><trkpt lat="43.97723688606607" lon="4.682446551077394"><ele>146.0</ele><time>2026-04-03T12:27:16Z</time></trkpt><trkpt lat="43.97735450052438" lon="4.6826087417437465"><ele>146.0</ele><time>2026-04-03T12:27:17Z</time></trkpt><trkpt lat="43.97746925047552" lon="4.682762778104118"><ele>146.0</ele><time>2026-04-03T12:27:18Z</time></trkpt><trkpt lat="43.97758517029386" lon="4.68291838483824"><ele>145.75</ele><time>2026-04-03T12:27:19Z</time></trkpt><trkpt lat="43.97769842117267" lon="4.68307819903922"><ele>145.5</ele><time>2026-04-03T12:27:20Z</time></trkpt><trkpt lat="43.97780597260954" lon="4.683221590856092"><ele>145.25</ele><time>2026-04-03T12:27:21Z</time></trkpt><trkpt lat="43.97786898613915" lon="4.683364843240515"><ele>145.0</ele><time>2026-04-03T12:27:22Z</time></trkpt><trkpt lat="43.97793408007931" lon="4.683448181207351"><ele>145.0</ele><time>2026-04-03T12:27:23Z</time></trkpt><trkpt lat="43.97796673566904" lon="4.683528294453141"><ele>145.0</ele><time>2026-04-03T12:27:25Z</time></trkpt><trkpt lat="43.97801124895468" lon="4.683636941950743"><ele>145.0</ele><time>2026-04-03T12:27:27Z</time></trkpt><trkpt lat="43.978087434881665" lon="4.683788187548674"><ele>145.0</ele><time>2026-04-03T12:27:28Z</time></trkpt><trkpt lat="43.97817675297656" lon="4.683968296337104"><ele>145.0</ele><time>2026-04-03T12:27:29Z</time></trkpt><trkpt lat="43.97828696433914" lon="4.68415721258222"><ele>144.0</ele><time>2026-04-03T12:27:30Z</time></trkpt><trkpt lat="43.97836781877912" lon="4.6843309827306925"><ele>143.0</ele><time>2026-04-03T12:27:31Z</time></trkpt><trkpt lat="43.978440144070674" lon="4.684479005196612"><ele>142.0</ele><time>2026-04-03T12:27:32Z</time></trkpt><trkpt lat="43.978521141458344" lon="4.684606654734283"><ele>141.0</ele><time>2026-04-03T12:27:33Z</time></trkpt><trkpt lat="43.97862155634535" lon="4.684714114186671"><ele>141.0</ele><time>2026-04-03T12:27:34Z</time></trkpt><trkpt lat="43.97873130453543" lon="4.6848454393737144"><ele>141.0</ele><time>2026-04-03T12:27:35Z</time></trkpt><trkpt lat="43.97884181084517" lon="4.6849855708462504"><ele>141.0</ele><time>2026-04-03T12:27:36Z</time></trkpt><trkpt lat="43.97894878586379" lon="4.685109814390042"><ele>141.0</ele><time>2026-04-03T12:27:37Z</time></trkpt><trkpt lat="43.97902804587491" lon="4.685241274918038"><ele>141.2</ele><time>2026-04-03T12:27:38Z</time></trkpt><trkpt lat="43.97908205770796" lon="4.685368554633129"><ele>141.39999999999998</ele><time>2026-04-03T12:27:39Z</time></trkpt><trkpt lat="43.97910544701427" lon="4.685510446818342"><ele>141.6</ele><time>2026-04-03T12:27:40Z</time></trkpt><trkpt lat="43.97916223680675" lon="4.6856014425099435"><ele>141.79999999999998</ele><time>2026-04-03T12:27:41Z</time></trkpt><trkpt lat="43.979278345210304" lon="4.685626506841269"><ele>142.0</ele><time>2026-04-03T12:27:42Z</time></trkpt><trkpt lat="43.979434903405455" lon="4.685615236412403"><ele>140.0</ele><time>2026-04-03T12:27:43Z</time></trkpt><trkpt lat="43.979577401910554" lon="4.685696539124761"><ele>138.0</ele><time>2026-04-03T12:27:44Z</time></trkpt><trkpt lat="43.979700588964086" lon="4.685825978051459"><ele>136.0</ele><time>2026-04-03T12:27:45Z</time></trkpt><trkpt lat="43.97981687257005" lon="4.685970097008261"><ele>135.66666666666669</ele><time>2026-04-03T12:27:46Z</time></trkpt><trkpt lat="43.97991053367964" lon="4.686140825226083"><ele>135.33333333333334</ele><time>2026-04-03T12:27:47Z</time></trkpt><trkpt lat="43.979996809017145" lon="4.68632433741673"><ele>135.0</ele><time>2026-04-03T12:27:48Z</time></trkpt><trkpt lat="43.98009585929656" lon="4.6864943653119795"><ele>135.0</ele><time>2026-04-03T12:27:48.999Z</time></trkpt><trkpt lat="43.980183116687044" lon="4.686664674645791"><ele>135.0</ele><time>2026-04-03T12:27:49.999Z</time></trkpt><trkpt lat="43.98026248009916" lon="4.686814077595504"><ele>135.0</ele><time>2026-04-03T12:27:50.999Z</time></trkpt><trkpt lat="43.98032950734576" lon="4.686967593095266"><ele>135.0</ele><time>2026-04-03T12:27:51.999Z</time></trkpt><trkpt lat="43.98040026519352" lon="4.6870835732108596"><ele>135.0</ele><time>2026-04-03T12:27:52.999Z</time></trkpt><trkpt lat="43.98046514444436" lon="4.6872420801234105"><ele>135.0</ele><time>2026-04-03T12:27:53.999Z</time></trkpt><trkpt lat="43.98054642368569" lon="4.687435456614177"><ele>135.0</ele><time>2026-04-03T12:27:54.999Z</time></trkpt><trkpt lat="43.9806294539463" lon="4.687644950617553"><ele>135.33333333333334</ele><time>2026-04-03T12:27:55.999Z</time></trkpt><trkpt lat="43.9807122144709" lon="4.687859736088313"><ele>135.66666666666669</ele><time>2026-04-03T12:27:56.999Z</time></trkpt><trkpt lat="43.980782114375735" lon="4.688109523052593"><ele>136.0</ele><time>2026-04-03T12:27:57.999Z</time></trkpt><trkpt lat="43.98085616300282" lon="4.688347081450509"><ele>135.66666666666669</ele><time>2026-04-03T12:27:58.999Z</time></trkpt><trkpt lat="43.98093175662412" lon="4.688595154912457"><ele>135.33333333333334</ele><time>2026-04-03T12:27:59.999Z</time></trkpt><trkpt lat="43.98101669867708" lon="4.688810039077621"><ele>135.0</ele><time>2026-04-03T12:28:00.999Z</time></trkpt><trkpt lat="43.98109190185624" lon="4.689008571679837"><ele>135.0</ele><time>2026-04-03T12:28:01.999Z</time></trkpt><trkpt lat="43.98116823400365" lon="4.6891741264172415"><ele>135.0</ele><time>2026-04-03T12:28:02.999Z</time></trkpt><trkpt lat="43.98124170079817" lon="4.689311446226835"><ele>135.0</ele><time>2026-04-03T12:28:03.999Z</time></trkpt><trkpt lat="43.98130755553056" lon="4.689408859359652"><ele>135.0</ele><time>2026-04-03T12:28:04.999Z</time></trkpt><trkpt lat="43.981347781431516" lon="4.68951697459327"><ele>135.0</ele><time>2026-04-03T12:28:06.999Z</time></trkpt><trkpt lat="43.98119305072755" lon="4.689541061599977"><ele>135.0</ele><time>2026-04-03T12:28:08.999Z</time></trkpt><trkpt lat="43.98110245649632" lon="4.689564187676732"><ele>135.0</ele><time>2026-04-03T12:28:09.999Z</time></trkpt><trkpt lat="43.980958729591215" lon="4.689558718733763"><ele>135.0</ele><time>2026-04-03T12:28:10.999Z</time></trkpt><trkpt lat="43.98077234007225" lon="4.68955822781686"><ele>135.0</ele><time>2026-04-03T12:28:11.999Z</time></trkpt><trkpt lat="43.98056386229406" lon="4.68956277365487"><ele>136.0</ele><time>2026-04-03T12:28:12.999Z</time></trkpt><trkpt lat="43.98038291463919" lon="4.689576760950442"><ele>137.0</ele><time>2026-04-03T12:28:13.999Z</time></trkpt><trkpt lat="43.98022748785262" lon="4.68958631910736"><ele>138.0</ele><time>2026-04-03T12:28:14.999Z</time></trkpt><trkpt lat="43.98008965885093" lon="4.689589775653252"><ele>138.4</ele><time>2026-04-03T12:28:15.999Z</time></trkpt><trkpt lat="43.979960968489415" lon="4.689590445102328"><ele>138.8</ele><time>2026-04-03T12:28:16.999Z</time></trkpt><trkpt lat="43.979847189686694" lon="4.689595099029842"><ele>139.2</ele><time>2026-04-03T12:28:17.999Z</time></trkpt><trkpt lat="43.97974312872154" lon="4.689606065125633"><ele>139.6</ele><time>2026-04-03T12:28:18.999Z</time></trkpt><trkpt lat="43.97966624537045" lon="4.689611663491518"><ele>140.0</ele><time>2026-04-03T12:28:19.999Z</time></trkpt><trkpt lat="43.979568094868704" lon="4.6895914825491385"><ele>140.0</ele><time>2026-04-03T12:28:21.999Z</time></trkpt><trkpt lat="43.97951293103856" lon="4.689806605291459"><ele>140.0</ele><time>2026-04-03T12:28:23.999Z</time></trkpt><trkpt lat="43.979519882790065" lon="4.689938782196155"><ele>140.0</ele><time>2026-04-03T12:28:24.999Z</time></trkpt><trkpt lat="43.979517544445386" lon="4.6900798744346375"><ele>140.0</ele><time>2026-04-03T12:28:25.999Z</time></trkpt><trkpt lat="43.97952531153053" lon="4.6902223336557745"><ele>140.0</ele><time>2026-04-03T12:28:26.999Z</time></trkpt><trkpt lat="43.979554403090525" lon="4.69034552244003"><ele>140.0</ele><time>2026-04-03T12:28:27.999Z</time></trkpt><trkpt lat="43.97959228201941" lon="4.690470192822896"><ele>140.0</ele><time>2026-04-03T12:28:28.999Z</time></trkpt><trkpt lat="43.97962856120545" lon="4.690637432669761"><ele>140.0</ele><time>2026-04-03T12:28:29.999Z</time></trkpt><trkpt lat="43.97966801325694" lon="4.690806347444103"><ele>140.0</ele><time>2026-04-03T12:28:30.999Z</time></trkpt><trkpt lat="43.979705463781656" lon="4.690978405465732"><ele>140.0</ele><time>2026-04-03T12:28:31.999Z</time></trkpt><trkpt lat="43.979738283919744" lon="4.691130244816737"><ele>140.0</ele><time>2026-04-03T12:28:32.999Z</time></trkpt><trkpt lat="43.97977189525848" lon="4.691267950921186"><ele>140.0</ele><time>2026-04-03T12:28:33.999Z</time></trkpt><trkpt lat="43.97980105149644" lon="4.691401181877151"><ele>140.0</ele><time>2026-04-03T12:28:34.999Z</time></trkpt><trkpt lat="43.97982316017729" lon="4.691533578613029"><ele>140.0</ele><time>2026-04-03T12:28:35.999Z</time></trkpt><trkpt lat="43.9798474908418" lon="4.69165511746296"><ele>140.0</ele><time>2026-04-03T12:28:36.999Z</time></trkpt><trkpt lat="43.979885553525584" lon="4.691761840271366"><ele>140.0</ele><time>2026-04-03T12:28:37.999Z</time></trkpt><trkpt lat="43.97993848614422" lon="4.691832407413157"><ele>140.0</ele><time>2026-04-03T12:28:38.999Z</time></trkpt><trkpt lat="43.98000507165403" lon="4.691884750780992"><ele>140.0</ele><time>2026-04-03T12:28:39.999Z</time></trkpt><trkpt lat="43.98006756405866" lon="4.691929195880711"><ele>140.0</ele><time>2026-04-03T12:28:40.999Z</time></trkpt><trkpt lat="43.980124125294275" lon="4.691974706700538"><ele>140.0</ele><time>2026-04-03T12:28:41.999Z</time></trkpt><trkpt lat="43.98018345831924" lon="4.692005355254839"><ele>140.0</ele><time>2026-04-03T12:28:42.999Z</time></trkpt><trkpt lat="43.98025013281112" lon="4.691975044409151"><ele>139.2</ele><time>2026-04-03T12:28:43.999Z</time></trkpt><trkpt lat="43.98030555651876" lon="4.691906703826615"><ele>138.4</ele><time>2026-04-03T12:28:44.999Z</time></trkpt><trkpt lat="43.98036636804071" lon="4.691851679210924"><ele>137.6</ele><time>2026-04-03T12:28:45.999Z</time></trkpt><trkpt lat="43.980469732317104" lon="4.691924432301901"><ele>136.8</ele><time>2026-04-03T12:28:47.999Z</time></trkpt><trkpt lat="43.980577769283336" lon="4.69197146996475"><ele>136.0</ele><time>2026-04-03T12:28:49.999Z</time></trkpt><trkpt lat="43.980652548113234" lon="4.692003100455215"><ele>134.66666666666669</ele><time>2026-04-03T12:28:51.999Z</time></trkpt><trkpt lat="43.980555795174304" lon="4.69200572154895"><ele>133.33333333333334</ele><time>2026-04-03T12:29:32Z</time></trkpt><trkpt lat="43.98048420525562" lon="4.692172707235808"><ele>132.0</ele><time>2026-04-03T12:29:34Z</time></trkpt><trkpt lat="43.980472108763024" lon="4.692085545908194"><ele>130.66666666666666</ele><time>2026-04-03T12:35:48Z</time></trkpt><trkpt lat="43.980507964151954" lon="4.692174175778737"><ele>129.33333333333331</ele><time>2026-04-03T12:36:04Z</time></trkpt><trkpt lat="43.980529871831685" lon="4.692083806853192"><ele>128.0</ele><time>2026-04-03T12:36:34Z</time></trkpt><trkpt lat="43.98047780030076" lon="4.691984107143168"><ele>128.0</ele><time>2026-04-03T12:36:47Z</time></trkpt><trkpt lat="43.980427156959486" lon="4.692039821653108"><ele>127.99999999999999</ele><time>2026-04-03T12:36:56Z</time></trkpt><trkpt lat="43.980508452607744" lon="4.692072869169016"><ele>128.0</ele><time>2026-04-03T12:37:04Z</time></trkpt><trkpt lat="43.98045811209187" lon="4.692133695390329"><ele>128.0</ele><time>2026-04-03T12:37:25Z</time></trkpt><trkpt lat="43.980501549619156" lon="4.692207516493361"><ele>127.99999999999999</ele><time>2026-04-03T12:37:35Z</time></trkpt><trkpt lat="43.98056057177845" lon="4.692252793983302"><ele>128.0</ele><time>2026-04-03T12:38:23Z</time></trkpt><trkpt lat="43.98056469482519" lon="4.6923437811020925"><ele>128.0</ele><time>2026-04-03T12:38:35Z</time></trkpt><trkpt lat="43.980501470732335" lon="4.692313096736192"><ele>128.0</ele><time>2026-04-03T12:38:41Z</time></trkpt><trkpt lat="43.98055833457311" lon="4.69223467577253"><ele>128.0</ele><time>2026-04-03T12:38:59Z</time></trkpt><trkpt lat="43.980581248716106" lon="4.692347476635059"><ele>128.0</ele><time>2026-04-03T12:39:25Z</time></trkpt><trkpt lat="43.98046903403658" lon="4.692440023673089"><ele>128.0</ele><time>2026-04-03T12:41:09.565Z</time></trkpt><trkpt lat="43.980632525356754" lon="4.692587828261822"><ele>127.99999999999999</ele><time>2026-04-03T12:41:11.5Z</time></trkpt><trkpt lat="43.98061224460936" lon="4.692421968405401"><ele>128.0</ele><time>2026-04-03T12:41:22Z</time></trkpt><trkpt lat="43.98054425273915" lon="4.692326124108643"><ele>128.0</ele><time>2026-04-03T12:41:24Z</time></trkpt><trkpt lat="43.98062465204231" lon="4.692276447072185"><ele>128.0</ele><time>2026-04-03T12:42:07Z</time></trkpt><trkpt lat="43.98068650018442" lon="4.692325895501236"><ele>127.99999999999999</ele><time>2026-04-03T12:42:10Z</time></trkpt><trkpt lat="43.98071731582645" lon="4.692405617460824"><ele>128.0</ele><time>2026-04-03T12:42:24.325Z</time></trkpt><trkpt lat="43.980669527090335" lon="4.6923472822155565"><ele>128.0</ele><time>2026-04-03T12:42:42Z</time></trkpt><trkpt lat="43.980622356917216" lon="4.692283163369716"><ele>128.0</ele><time>2026-04-03T12:42:45Z</time></trkpt><trkpt lat="43.98056726577404" lon="4.692219024714575"><ele>128.0</ele><time>2026-04-03T12:42:48Z</time></trkpt><trkpt lat="43.98065434276646" lon="4.692281748221782"><ele>128.0</ele><time>2026-04-03T12:43:04.548Z</time></trkpt><trkpt lat="43.98049319341312" lon="4.692413525479216"><ele>128.0</ele><time>2026-04-03T12:43:07.775Z</time></trkpt><trkpt lat="43.980591213140876" lon="4.692465438519204"><ele>128.0</ele><time>2026-04-03T12:43:12.5Z</time></trkpt><trkpt lat="43.98068368254401" lon="4.69253415378002"><ele>128.0</ele><time>2026-04-03T12:43:14.4Z</time></trkpt><trkpt lat="43.9806190689143" lon="4.692414983990854"><ele>128.0</ele><time>2026-04-03T12:43:17.25Z</time></trkpt><trkpt lat="43.98053294543924" lon="4.692244743552974"><ele>128.0</ele><time>2026-04-03T12:43:19.15Z</time></trkpt><trkpt lat="43.98052100019028" lon="4.692149857310543"><ele>128.0</ele><time>2026-04-03T12:43:21.05Z</time></trkpt><trkpt lat="43.98055904373213" lon="4.692061563670535"><ele>128.0</ele><time>2026-04-03T12:43:27.026Z</time></trkpt><trkpt lat="43.9805009900404" lon="4.6920051429533265"><ele>128.0</ele><time>2026-04-03T12:43:30Z</time></trkpt><trkpt lat="43.980402162587865" lon="4.69206118742493"><ele>128.0</ele><time>2026-04-03T12:44:02Z</time></trkpt><trkpt lat="43.98043362975531" lon="4.6921634308895275"><ele>128.0</ele><time>2026-04-03T12:44:23Z</time></trkpt><trkpt lat="43.98057674485734" lon="4.692162293173845"><ele>128.0</ele><time>2026-04-03T12:45:06Z</time></trkpt><trkpt lat="43.980540732892074" lon="4.692236567860334"><ele>128.0</ele><time>2026-04-03T12:47:38Z</time></trkpt><trkpt lat="43.98046844502906" lon="4.692152501244228"><ele>128.0</ele><time>2026-04-03T12:50:05Z</time></trkpt><trkpt lat="43.98038676470395" lon="4.692146074997606"><ele>128.0</ele><time>2026-04-03T12:53:04Z</time></trkpt><trkpt lat="43.980536247269704" lon="4.692186054539662"><ele>128.0</ele><time>2026-04-03T12:53:08Z</time></trkpt><trkpt lat="43.98049772110525" lon="4.69210806618802"><ele>128.0</ele><time>2026-04-03T12:54:35Z</time></trkpt><trkpt lat="43.98056728759733" lon="4.692091968607372"><ele>127.99999999999999</ele><time>2026-04-03T12:54:49Z</time></trkpt><trkpt lat="43.98063538664076" lon="4.6921149639536885"><ele>128.0</ele><time>2026-04-03T12:54:52Z</time></trkpt><trkpt lat="43.980591750277775" lon="4.69220145672647"><ele>128.0</ele><time>2026-04-03T12:55:10Z</time></trkpt><trkpt lat="43.98057869270838" lon="4.692301393480519"><ele>128.0</ele><time>2026-04-03T12:55:26.025Z</time></trkpt><trkpt lat="43.980485918758376" lon="4.692194192367887"><ele>127.99999999999999</ele><time>2026-04-03T12:55:41Z</time></trkpt><trkpt lat="43.98049521977912" lon="4.692104474155524"><ele>128.0</ele><time>2026-04-03T12:56:26Z</time></trkpt><trkpt lat="43.98046785184256" lon="4.692199748594689"><ele>128.0</ele><time>2026-04-03T12:57:05Z</time></trkpt><trkpt lat="43.98048921729343" lon="4.692112537556952"><ele>127.99999999999999</ele><time>2026-04-03T12:57:10Z</time></trkpt><trkpt lat="43.98042344927411" lon="4.6920866390558"><ele>128.0</ele><time>2026-04-03T12:57:16Z</time></trkpt><trkpt lat="43.98047509037764" lon="4.692139097325277"><ele>128.0</ele><time>2026-04-03T12:57:25Z</time></trkpt><trkpt lat="43.980551665671804" lon="4.692183382865658"><ele>127.99999999999999</ele><time>2026-04-03T12:58:01Z</time></trkpt><trkpt lat="43.98056887105331" lon="4.6922701496456485"><ele>128.0</ele><time>2026-04-03T13:00:18Z</time></trkpt><trkpt lat="43.98052433409167" lon="4.692204204391416"><ele>128.0</ele><time>2026-04-03T13:00:47Z</time></trkpt><trkpt lat="43.980520840086726" lon="4.6921065358512735"><ele>128.0</ele><time>2026-04-03T13:01:14Z</time></trkpt><trkpt lat="43.98046308575133" lon="4.692256076292375"><ele>128.0</ele><time>2026-04-03T13:01:33Z</time></trkpt><trkpt lat="43.980443729344735" lon="4.6921578592004085"><ele>128.0</ele><time>2026-04-03T13:02:11Z</time></trkpt><trkpt lat="43.980385169420124" lon="4.692202645709049"><ele>128.0</ele><time>2026-04-03T13:04:55Z</time></trkpt><trkpt lat="43.98041434136745" lon="4.692025629166203"><ele>128.0</ele><time>2026-04-03T13:09:37Z</time></trkpt><trkpt lat="43.98042202451909" lon="4.692124534600254"><ele>128.0</ele><time>2026-04-03T13:21:02Z</time></trkpt><trkpt lat="43.98037455119414" lon="4.692197257885892"><ele>128.0</ele><time>2026-04-03T13:22:04Z</time></trkpt><trkpt lat="43.980434805214315" lon="4.692165276316484"><ele>128.0</ele><time>2026-04-03T13:39:23Z</time></trkpt><trkpt lat="43.98041366229491" lon="4.69207535822289"><ele>128.0</ele><time>2026-04-03T13:39:36Z</time></trkpt></trkseg></trk></gpx>